<?xml version='1.0' encoding='UTF-8'?><gpx version="1.1" creator="JPX - https://github.com/jenetics/jpx" xmlns="http://www.topografix.com/GPX/1/1"><trk><trkseg><trkpt lat="40.24256031066018" lon="8.76955635859185"><ele>414.0</ele><time>2026-04-26T12:30:28.937Z</time></trkpt><trkpt lat="40.24243472520325" lon="8.76962136885897"><ele>414.0</ele><time>2026-04-26T12:30:29.937Z</time></trkpt><trkpt lat="40.24230707877666" lon="8.769692496171908"><ele>414.0</ele><time>2026-04-26T12:30:30.937Z</time></trkpt><trkpt lat="40.24217805404313" lon="8.76976399007537"><ele>414.0</ele><time>2026-04-26T12:30:31.937Z</time></trkpt><trkpt lat="40.24204768058976" lon="8.769831900646615"><ele>413.75</ele><time>2026-04-26T12:30:32.937Z</time></trkpt><trkpt lat="40.2419192098614" lon="8.769900022564647"><ele>413.5</ele><time>2026-04-26T12:30:33.937Z</time></trkpt><trkpt lat="40.241790544816" lon="8.769964999747595"><ele>413.25</ele><time>2026-04-26T12:30:34.937Z</time></trkpt><trkpt lat="40.24165808483567" lon="8.770032741028515"><ele>413.0</ele><time>2026-04-26T12:30:35.937Z</time></trkpt><trkpt lat="40.24152868431582" lon="8.770099953595624"><ele>413.0</ele><time>2026-04-26T12:30:36.937Z</time></trkpt><trkpt lat="40.241398361449534" lon="8.770170354367885"><ele>413.0</ele><time>2026-04-26T12:30:37.937Z</time></trkpt><trkpt lat="40.2412656675342" lon="8.77024232290099"><ele>413.0</ele><time>2026-04-26T12:30:38.937Z</time></trkpt><trkpt lat="40.24113844721879" lon="8.770307529513474"><ele>413.0</ele><time>2026-04-26T12:30:39.937Z</time></trkpt><trkpt lat="40.24101340094303" lon="8.770377411172195"><ele>412.5</ele><time>2026-04-26T12:30:40.937Z</time></trkpt><trkpt lat="40.24088432955633" lon="8.77044672061443"><ele>412.0</ele><time>2026-04-26T12:30:41.937Z</time></trkpt><trkpt lat="40.24075362759558" lon="8.77051744288293"><ele>411.5</ele><time>2026-04-26T12:30:42.937Z</time></trkpt><trkpt lat="40.24061912328903" lon="8.77059424899977"><ele>411.0</ele><time>2026-04-26T12:30:43.937Z</time></trkpt><trkpt lat="40.2404880482966" lon="8.770661143750619"><ele>410.5</ele><time>2026-04-26T12:30:44.937Z</time></trkpt><trkpt lat="40.24035519252804" lon="8.77072734348803"><ele>410.0</ele><time>2026-04-26T12:30:45.937Z</time></trkpt><trkpt lat="40.240222445427" lon="8.770795291611291"><ele>409.5</ele><time>2026-04-26T12:30:46.937Z</time></trkpt><trkpt lat="40.24008529607826" lon="8.770873698801104"><ele>409.0</ele><time>2026-04-26T12:30:47.937Z</time></trkpt><trkpt lat="40.23994657568748" lon="8.77094914304131"><ele>409.0</ele><time>2026-04-26T12:30:48.937Z</time></trkpt><trkpt lat="40.23980842091277" lon="8.771022576766287"><ele>409.0</ele><time>2026-04-26T12:30:49.937Z</time></trkpt><trkpt lat="40.23967090370214" lon="8.771093980444329"><ele>409.0</ele><time>2026-04-26T12:30:50.937Z</time></trkpt><trkpt lat="40.23952834754752" lon="8.771163879381215"><ele>409.0</ele><time>2026-04-26T12:30:51.937Z</time></trkpt><trkpt lat="40.23938687582083" lon="8.771237542117603"><ele>410.0</ele><time>2026-04-26T12:30:52.937Z</time></trkpt><trkpt lat="40.23924228143081" lon="8.771312928334837"><ele>411.0</ele><time>2026-04-26T12:30:53.937Z</time></trkpt><trkpt lat="40.23909557456957" lon="8.771390009467579"><ele>412.0</ele><time>2026-04-26T12:30:54.937Z</time></trkpt><trkpt lat="40.238947971079675" lon="8.771466716051691"><ele>413.0</ele><time>2026-04-26T12:30:55.937Z</time></trkpt><trkpt lat="40.23879994613825" lon="8.771539910070887"><ele>414.0</ele><time>2026-04-26T12:30:56.937Z</time></trkpt><trkpt lat="40.23865937780332" lon="8.77160952846633"><ele>415.0</ele><time>2026-04-26T12:30:57.937Z</time></trkpt><trkpt lat="40.23852161398578" lon="8.77167802858318"><ele>415.0</ele><time>2026-04-26T12:30:58.937Z</time></trkpt><trkpt lat="40.23837925848581" lon="8.771752653719819"><ele>415.0</ele><time>2026-04-26T12:30:59.937Z</time></trkpt><trkpt lat="40.23823365064796" lon="8.771830972384867"><ele>415.0</ele><time>2026-04-26T12:31:00.937Z</time></trkpt><trkpt lat="40.23808995453813" lon="8.771907357897344"><ele>416.0</ele><time>2026-04-26T12:31:01.937Z</time></trkpt><trkpt lat="40.23793887684096" lon="8.771985596407825"><ele>417.0</ele><time>2026-04-26T12:31:02.937Z</time></trkpt><trkpt lat="40.23778217535691" lon="8.77206707310283"><ele>418.0</ele><time>2026-04-26T12:31:03.937Z</time></trkpt><trkpt lat="40.23762796826248" lon="8.772156482721675"><ele>418.0</ele><time>2026-04-26T12:31:04.937Z</time></trkpt><trkpt lat="40.237472539211694" lon="8.772241287050713"><ele>418.0</ele><time>2026-04-26T12:31:05.937Z</time></trkpt><trkpt lat="40.23731734653728" lon="8.77232819553599"><ele>418.0</ele><time>2026-04-26T12:31:06.937Z</time></trkpt><trkpt lat="40.23716161405381" lon="8.772413381477904"><ele>417.6666666666667</ele><time>2026-04-26T12:31:07.937Z</time></trkpt><trkpt lat="40.2370069695661" lon="8.772497435350786"><ele>417.33333333333337</ele><time>2026-04-26T12:31:08.937Z</time></trkpt><trkpt lat="40.236853758374714" lon="8.772577834746246"><ele>417.0</ele><time>2026-04-26T12:31:09.937Z</time></trkpt><trkpt lat="40.23670020695909" lon="8.772659367413066"><ele>417.33333333333337</ele><time>2026-04-26T12:31:10.936Z</time></trkpt><trkpt lat="40.23654593308892" lon="8.772742505568056"><ele>417.6666666666667</ele><time>2026-04-26T12:31:11.937Z</time></trkpt><trkpt lat="40.23639270956544" lon="8.772829311177615"><ele>418.0</ele><time>2026-04-26T12:31:12.937Z</time></trkpt><trkpt lat="40.236241385111924" lon="8.772912606176567"><ele>418.6666666666667</ele><time>2026-04-26T12:31:13.937Z</time></trkpt><trkpt lat="40.23608838918769" lon="8.77300359371374"><ele>419.33333333333337</ele><time>2026-04-26T12:31:14.937Z</time></trkpt><trkpt lat="40.23593425691577" lon="8.773090148636022"><ele>420.0</ele><time>2026-04-26T12:31:15.937Z</time></trkpt><trkpt lat="40.23577870014311" lon="8.773177658388514"><ele>421.0</ele><time>2026-04-26T12:31:16.937Z</time></trkpt><trkpt lat="40.235621819249346" lon="8.773267277763477"><ele>422.0</ele><time>2026-04-26T12:31:17.937Z</time></trkpt><trkpt lat="40.235464744219485" lon="8.773346768383092"><ele>423.0</ele><time>2026-04-26T12:31:18.937Z</time></trkpt><trkpt lat="40.23530800939124" lon="8.773422749385789"><ele>423.0</ele><time>2026-04-26T12:31:19.936Z</time></trkpt><trkpt lat="40.235150693064455" lon="8.773502667128003"><ele>423.0</ele><time>2026-04-26T12:31:20.937Z</time></trkpt><trkpt lat="40.234994501463675" lon="8.773580360514904"><ele>423.0</ele><time>2026-04-26T12:31:21.937Z</time></trkpt><trkpt lat="40.23484072551238" lon="8.773663563897241"><ele>423.0</ele><time>2026-04-26T12:31:22.937Z</time></trkpt><trkpt lat="40.234688853057385" lon="8.773745283165729"><ele>423.0</ele><time>2026-04-26T12:31:23.937Z</time></trkpt><trkpt lat="40.2345360133267" lon="8.773836874057135"><ele>423.0</ele><time>2026-04-26T12:31:24.937Z</time></trkpt><trkpt lat="40.23437819991792" lon="8.773925746112702"><ele>423.0</ele><time>2026-04-26T12:31:25.937Z</time></trkpt><trkpt lat="40.23421987767343" lon="8.774007470846554"><ele>423.0</ele><time>2026-04-26T12:31:26.937Z</time></trkpt><trkpt lat="40.234062775667276" lon="8.774087383977944"><ele>423.0</ele><time>2026-04-26T12:31:27.937Z</time></trkpt><trkpt lat="40.23390271299522" lon="8.774171120099725"><ele>423.33333333333337</ele><time>2026-04-26T12:31:28.937Z</time></trkpt><trkpt lat="40.23374330270895" lon="8.774255600074278"><ele>423.6666666666667</ele><time>2026-04-26T12:31:29.937Z</time></trkpt><trkpt lat="40.23358366975776" lon="8.774344909252667"><ele>424.0</ele><time>2026-04-26T12:31:30.937Z</time></trkpt><trkpt lat="40.233422958222135" lon="8.774431634942987"><ele>423.6666666666667</ele><time>2026-04-26T12:31:31.937Z</time></trkpt><trkpt lat="40.23326295290919" lon="8.77451376004048"><ele>423.33333333333337</ele><time>2026-04-26T12:31:32.937Z</time></trkpt><trkpt lat="40.23310109497058" lon="8.774597580365285"><ele>423.0</ele><time>2026-04-26T12:31:33.937Z</time></trkpt><trkpt lat="40.23294146414055" lon="8.774678823435359"><ele>423.0</ele><time>2026-04-26T12:31:34.937Z</time></trkpt><trkpt lat="40.23278052304591" lon="8.77475915016765"><ele>423.0</ele><time>2026-04-26T12:31:35.937Z</time></trkpt><trkpt lat="40.23261940197186" lon="8.774843876851067"><ele>423.0</ele><time>2026-04-26T12:31:36.937Z</time></trkpt><trkpt lat="40.23245955320061" lon="8.774938774865605"><ele>423.33333333333337</ele><time>2026-04-26T12:31:37.937Z</time></trkpt><trkpt lat="40.23230042884758" lon="8.775029243150465"><ele>423.6666666666667</ele><time>2026-04-26T12:31:38.937Z</time></trkpt><trkpt lat="40.23214067002467" lon="8.775118771219526"><ele>424.0</ele><time>2026-04-26T12:31:39.937Z</time></trkpt><trkpt lat="40.231980487292724" lon="8.77520955227454"><ele>424.0</ele><time>2026-04-26T12:31:40.937Z</time></trkpt><trkpt lat="40.23182078604212" lon="8.77529851758908"><ele>424.0</ele><time>2026-04-26T12:31:41.937Z</time></trkpt><trkpt lat="40.231660281822904" lon="8.775383503910135"><ele>424.0</ele><time>2026-04-26T12:31:42.937Z</time></trkpt><trkpt lat="40.23150157572478" lon="8.77546870136422"><ele>424.0</ele><time>2026-04-26T12:31:43.937Z</time></trkpt><trkpt lat="40.23134497411444" lon="8.77555067458081"><ele>424.0</ele><time>2026-04-26T12:31:44.937Z</time></trkpt><trkpt lat="40.231188126117" lon="8.775631947801756"><ele>424.0</ele><time>2026-04-26T12:31:45.937Z</time></trkpt><trkpt lat="40.2310331809885" lon="8.775715724193915"><ele>424.0</ele><time>2026-04-26T12:31:46.937Z</time></trkpt><trkpt lat="40.23087999736238" lon="8.77579809894278"><ele>424.0</ele><time>2026-04-26T12:31:47.937Z</time></trkpt><trkpt lat="40.230723958565434" lon="8.775883754125665"><ele>424.0</ele><time>2026-04-26T12:31:48.937Z</time></trkpt><trkpt lat="40.23056542065193" lon="8.775965952199808"><ele>424.6666666666667</ele><time>2026-04-26T12:31:49.937Z</time></trkpt><trkpt lat="40.23040594049854" lon="8.776049594303394"><ele>425.33333333333337</ele><time>2026-04-26T12:31:50.937Z</time></trkpt><trkpt lat="40.230243124587915" lon="8.776133198615481"><ele>426.0</ele><time>2026-04-26T12:31:51.937Z</time></trkpt><trkpt lat="40.23008018052311" lon="8.776215064055691"><ele>426.0</ele><time>2026-04-26T12:31:52.937Z</time></trkpt><trkpt lat="40.22991747664714" lon="8.77629482634165"><ele>426.0</ele><time>2026-04-26T12:31:53.937Z</time></trkpt><trkpt lat="40.22975727116219" lon="8.776379039181213"><ele>426.0</ele><time>2026-04-26T12:31:54.937Z</time></trkpt><trkpt lat="40.229597800995165" lon="8.77646832715805"><ele>426.0</ele><time>2026-04-26T12:31:55.937Z</time></trkpt><trkpt lat="40.22943608484508" lon="8.776553817906615"><ele>426.0</ele><time>2026-04-26T12:31:56.937Z</time></trkpt><trkpt lat="40.22927932683322" lon="8.776639470049796"><ele>426.0</ele><time>2026-04-26T12:31:57.937Z</time></trkpt><trkpt lat="40.229123709118696" lon="8.776722020271599"><ele>426.33333333333337</ele><time>2026-04-26T12:31:58.937Z</time></trkpt><trkpt lat="40.22896763764024" lon="8.77680821989379"><ele>426.6666666666667</ele><time>2026-04-26T12:31:59.937Z</time></trkpt><trkpt lat="40.22881024822425" lon="8.776890748179925"><ele>427.0</ele><time>2026-04-26T12:32:00.937Z</time></trkpt><trkpt lat="40.22865291317875" lon="8.7769781464709"><ele>427.33333333333337</ele><time>2026-04-26T12:32:01.937Z</time></trkpt><trkpt lat="40.22849211317219" lon="8.77706857054885"><ele>427.66666666666663</ele><time>2026-04-26T12:32:02.937Z</time></trkpt><trkpt lat="40.22833179272088" lon="8.777152122234552"><ele>428.0</ele><time>2026-04-26T12:32:03.937Z</time></trkpt><trkpt lat="40.228170813476694" lon="8.777234313286728"><ele>428.66666666666663</ele><time>2026-04-26T12:32:04.937Z</time></trkpt><trkpt lat="40.22801489593296" lon="8.777314555797318"><ele>429.33333333333337</ele><time>2026-04-26T12:32:05.937Z</time></trkpt><trkpt lat="40.22786434254435" lon="8.777403671300432"><ele>430.0</ele><time>2026-04-26T12:32:06.937Z</time></trkpt><trkpt lat="40.22772092625296" lon="8.777504802958608"><ele>430.0</ele><time>2026-04-26T12:32:07.937Z</time></trkpt><trkpt lat="40.22757740308655" lon="8.777624986173098"><ele>430.0</ele><time>2026-04-26T12:32:08.937Z</time></trkpt><trkpt lat="40.22742835221637" lon="8.777757593252606"><ele>430.0</ele><time>2026-04-26T12:32:09.937Z</time></trkpt><trkpt lat="40.22727809702813" lon="8.777891057283549"><ele>431.0</ele><time>2026-04-26T12:32:10.937Z</time></trkpt><trkpt lat="40.22712726505031" lon="8.778018415577062"><ele>432.0</ele><time>2026-04-26T12:32:11.937Z</time></trkpt><trkpt lat="40.22697266448925" lon="8.778141393773684"><ele>433.0</ele><time>2026-04-26T12:32:12.937Z</time></trkpt><trkpt lat="40.226815492831086" lon="8.778255037295976"><ele>433.0</ele><time>2026-04-26T12:32:13.937Z</time></trkpt><trkpt lat="40.22665840446109" lon="8.778355569405086"><ele>433.0</ele><time>2026-04-26T12:32:14.937Z</time></trkpt><trkpt lat="40.2265037413899" lon="8.778457234699191"><ele>433.0</ele><time>2026-04-26T12:32:15.937Z</time></trkpt><trkpt lat="40.22635526606081" lon="8.778555280462825"><ele>433.0</ele><time>2026-04-26T12:32:16.937Z</time></trkpt><trkpt lat="40.2262075719076" lon="8.778649022707992"><ele>433.0</ele><time>2026-04-26T12:32:17.937Z</time></trkpt><trkpt lat="40.22606285137546" lon="8.77874482330266"><ele>433.0</ele><time>2026-04-26T12:32:18.937Z</time></trkpt><trkpt lat="40.22591233682169" lon="8.778832236543701"><ele>433.0</ele><time>2026-04-26T12:32:19.937Z</time></trkpt><trkpt lat="40.225758167076904" lon="8.778906459920439"><ele>433.0</ele><time>2026-04-26T12:32:20.937Z</time></trkpt><trkpt lat="40.225604493192584" lon="8.77897548632457"><ele>433.0</ele><time>2026-04-26T12:32:21.938Z</time></trkpt><trkpt lat="40.2254523076672" lon="8.77903070781429"><ele>433.0</ele><time>2026-04-26T12:32:22.938Z</time></trkpt><trkpt lat="40.225296887916244" lon="8.779092676821383"><ele>433.0</ele><time>2026-04-26T12:32:23.938Z</time></trkpt><trkpt lat="40.22514097632234" lon="8.779149639108983"><ele>433.0</ele><time>2026-04-26T12:32:24.938Z</time></trkpt><trkpt lat="40.22498287520471" lon="8.779211153356897"><ele>433.0</ele><time>2026-04-26T12:32:25.938Z</time></trkpt><trkpt lat="40.22482208385763" lon="8.77927143470683"><ele>433.0</ele><time>2026-04-26T12:32:26.938Z</time></trkpt><trkpt lat="40.22465835330651" lon="8.779327328598624"><ele>433.0</ele><time>2026-04-26T12:32:27.938Z</time></trkpt><trkpt lat="40.224493741557374" lon="8.779384751542718"><ele>433.0</ele><time>2026-04-26T12:32:28.938Z</time></trkpt><trkpt lat="40.22432549032889" lon="8.779438706815267"><ele>433.0</ele><time>2026-04-26T12:32:29.938Z</time></trkpt><trkpt lat="40.22415389379082" lon="8.779486864788675"><ele>433.0</ele><time>2026-04-26T12:32:30.938Z</time></trkpt><trkpt lat="40.223980672387995" lon="8.7795400219497"><ele>433.0</ele><time>2026-04-26T12:32:31.938Z</time></trkpt><trkpt lat="40.22380653378618" lon="8.779585733707135"><ele>433.0</ele><time>2026-04-26T12:32:32.938Z</time></trkpt><trkpt lat="40.22363239479429" lon="8.779625866360009"><ele>433.0</ele><time>2026-04-26T12:32:33.938Z</time></trkpt><trkpt lat="40.223457303635406" lon="8.779659028408192"><ele>433.0</ele><time>2026-04-26T12:32:34.938Z</time></trkpt><trkpt lat="40.223282167481806" lon="8.779692885562163"><ele>433.0</ele><time>2026-04-26T12:32:35.938Z</time></trkpt><trkpt lat="40.22310834716233" lon="8.779724405248365"><ele>433.0</ele><time>2026-04-26T12:32:36.938Z</time></trkpt><trkpt lat="40.222935623787485" lon="8.779751035213648"><ele>433.0</ele><time>2026-04-26T12:32:37.938Z</time></trkpt><trkpt lat="40.2227609363265" lon="8.779765117872534"><ele>433.0</ele><time>2026-04-26T12:32:38.938Z</time></trkpt><trkpt lat="40.222594678991285" lon="8.779770274925824"><ele>433.0</ele><time>2026-04-26T12:32:39.938Z</time></trkpt><trkpt lat="40.22243023216802" lon="8.779803028715639"><ele>433.33333333333337</ele><time>2026-04-26T12:32:40.938Z</time></trkpt><trkpt lat="40.22227018299475" lon="8.779831709019376"><ele>433.66666666666663</ele><time>2026-04-26T12:32:41.938Z</time></trkpt><trkpt lat="40.22210008430361" lon="8.779863538352474"><ele>434.0</ele><time>2026-04-26T12:32:42.938Z</time></trkpt><trkpt lat="40.22193986304577" lon="8.779893515214065"><ele>434.0</ele><time>2026-04-26T12:32:43.938Z</time></trkpt><trkpt lat="40.22178778356663" lon="8.779923797752302"><ele>434.0</ele><time>2026-04-26T12:32:44.938Z</time></trkpt><trkpt lat="40.22162745314727" lon="8.77995743085415"><ele>434.0</ele><time>2026-04-26T12:32:45.938Z</time></trkpt><trkpt lat="40.221461326096666" lon="8.779998606064051"><ele>434.0</ele><time>2026-04-26T12:32:46.938Z</time></trkpt><trkpt lat="40.221312517498376" lon="8.780041503860643"><ele>434.0</ele><time>2026-04-26T12:32:47.938Z</time></trkpt><trkpt lat="40.22115310986008" lon="8.780089267434"><ele>434.0</ele><time>2026-04-26T12:32:48.938Z</time></trkpt><trkpt lat="40.2208355320593" lon="8.780249628181837"><ele>433.66666666666663</ele><time>2026-04-26T12:32:49.938Z</time></trkpt><trkpt lat="40.22066258920189" lon="8.78030617718615"><ele>433.33333333333337</ele><time>2026-04-26T12:32:50.938Z</time></trkpt><trkpt lat="40.220489001127866" lon="8.780365364181888"><ele>433.0</ele><time>2026-04-26T12:32:51.938Z</time></trkpt><trkpt lat="40.220315814095116" lon="8.780422581860064"><ele>433.0</ele><time>2026-04-26T12:32:52.938Z</time></trkpt><trkpt lat="40.220141349791305" lon="8.780480749599107"><ele>433.0</ele><time>2026-04-26T12:32:53.938Z</time></trkpt><trkpt lat="40.2199690438463" lon="8.780542921205177"><ele>433.0</ele><time>2026-04-26T12:32:54.938Z</time></trkpt><trkpt lat="40.21979410943868" lon="8.780603915395533"><ele>433.0</ele><time>2026-04-26T12:32:55.938Z</time></trkpt><trkpt lat="40.219621324908594" lon="8.780678538649163"><ele>433.0</ele><time>2026-04-26T12:32:56.938Z</time></trkpt><trkpt lat="40.21944862612593" lon="8.780749378143792"><ele>433.0</ele><time>2026-04-26T12:32:57.938Z</time></trkpt><trkpt lat="40.219274813526425" lon="8.780821545777258"><ele>433.0</ele><time>2026-04-26T12:32:58.938Z</time></trkpt><trkpt lat="40.219102260937554" lon="8.78089205856501"><ele>433.0</ele><time>2026-04-26T12:32:59.938Z</time></trkpt><trkpt lat="40.21892965591094" lon="8.780964772062628"><ele>433.0</ele><time>2026-04-26T12:33:00.938Z</time></trkpt><trkpt lat="40.21875922884245" lon="8.781043189803503"><ele>432.6666666666667</ele><time>2026-04-26T12:33:01.938Z</time></trkpt><trkpt lat="40.218587321480214" lon="8.781129969104164"><ele>432.33333333333337</ele><time>2026-04-26T12:33:02.938Z</time></trkpt><trkpt lat="40.218416718958956" lon="8.781221379344432"><ele>432.0</ele><time>2026-04-26T12:33:03.938Z</time></trkpt><trkpt lat="40.218248028203334" lon="8.78130951262951"><ele>432.33333333333337</ele><time>2026-04-26T12:33:04.938Z</time></trkpt><trkpt lat="40.21808079764136" lon="8.781398375188688"><ele>432.6666666666667</ele><time>2026-04-26T12:33:05.938Z</time></trkpt><trkpt lat="40.21791438791958" lon="8.78148181338538"><ele>433.0</ele><time>2026-04-26T12:33:06.938Z</time></trkpt><trkpt lat="40.21774372525348" lon="8.78155725087449"><ele>433.0</ele><time>2026-04-26T12:33:07.938Z</time></trkpt><trkpt lat="40.21757388378829" lon="8.78162910973987"><ele>433.0</ele><time>2026-04-26T12:33:08.938Z</time></trkpt><trkpt lat="40.217403033798554" lon="8.781705283469067"><ele>433.0</ele><time>2026-04-26T12:33:09.938Z</time></trkpt><trkpt lat="40.21723350057735" lon="8.781775787428716"><ele>433.0</ele><time>2026-04-26T12:33:10.938Z</time></trkpt><trkpt lat="40.217061196007855" lon="8.781848416100416"><ele>433.0</ele><time>2026-04-26T12:33:11.938Z</time></trkpt><trkpt lat="40.216884997341865" lon="8.781908990813228"><ele>433.0</ele><time>2026-04-26T12:33:12.938Z</time></trkpt><trkpt lat="40.2167084527541" lon="8.781970141020208"><ele>432.33333333333337</ele><time>2026-04-26T12:33:13.938Z</time></trkpt><trkpt lat="40.216533824861976" lon="8.782028711992895"><ele>431.66666666666663</ele><time>2026-04-26T12:33:14.938Z</time></trkpt><trkpt lat="40.21635961964729" lon="8.782087448999238"><ele>431.0</ele><time>2026-04-26T12:33:15.938Z</time></trkpt><trkpt lat="40.21618957770153" lon="8.782135963518764"><ele>431.0</ele><time>2026-04-26T12:33:16.938Z</time></trkpt><trkpt lat="40.216013840962944" lon="8.782191125294949"><ele>431.0</ele><time>2026-04-26T12:33:17.937Z</time></trkpt><trkpt lat="40.215835654152734" lon="8.78224839703366"><ele>431.0</ele><time>2026-04-26T12:33:18.937Z</time></trkpt><trkpt lat="40.21566402410676" lon="8.78230335417064"><ele>431.3333333333333</ele><time>2026-04-26T12:33:19.937Z</time></trkpt><trkpt lat="40.21549081031339" lon="8.782354374686905"><ele>431.66666666666663</ele><time>2026-04-26T12:33:20.937Z</time></trkpt><trkpt lat="40.21531059255684" lon="8.782410626854434"><ele>432.0</ele><time>2026-04-26T12:33:21.937Z</time></trkpt><trkpt lat="40.215136027501075" lon="8.782468851113743"><ele>432.0</ele><time>2026-04-26T12:33:22.938Z</time></trkpt><trkpt lat="40.21496032924761" lon="8.782519000580157"><ele>432.0</ele><time>2026-04-26T12:33:23.937Z</time></trkpt><trkpt lat="40.214780273129634" lon="8.782570454918854"><ele>432.0</ele><time>2026-04-26T12:33:24.937Z</time></trkpt><trkpt lat="40.21460278887201" lon="8.7826240846416"><ele>431.33333333333337</ele><time>2026-04-26T12:33:25.937Z</time></trkpt><trkpt lat="40.21442954064939" lon="8.782678292613092"><ele>430.6666666666667</ele><time>2026-04-26T12:33:26.937Z</time></trkpt><trkpt lat="40.21425089893354" lon="8.782735032894236"><ele>430.0</ele><time>2026-04-26T12:33:27.937Z</time></trkpt><trkpt lat="40.21407720017354" lon="8.782790558829406"><ele>429.33333333333337</ele><time>2026-04-26T12:33:28.938Z</time></trkpt><trkpt lat="40.21389682098391" lon="8.782850354019153"><ele>428.66666666666663</ele><time>2026-04-26T12:33:29.937Z</time></trkpt><trkpt lat="40.2137234469604" lon="8.782906750760372"><ele>428.0</ele><time>2026-04-26T12:33:30.937Z</time></trkpt><trkpt lat="40.21354964170102" lon="8.782960586220064"><ele>428.0</ele><time>2026-04-26T12:33:31.937Z</time></trkpt><trkpt lat="40.2133825896704" lon="8.783006029875507"><ele>428.0</ele><time>2026-04-26T12:33:32.937Z</time></trkpt><trkpt lat="40.213220001467185" lon="8.78304699941984"><ele>428.0</ele><time>2026-04-26T12:33:33.937Z</time></trkpt><trkpt lat="40.2130708604108" lon="8.783069548083617"><ele>428.25</ele><time>2026-04-26T12:33:34.937Z</time></trkpt><trkpt lat="40.212929377797614" lon="8.783062545398597"><ele>428.5</ele><time>2026-04-26T12:33:35.937Z</time></trkpt><trkpt lat="40.21279544330838" lon="8.783032558159732"><ele>428.75</ele><time>2026-04-26T12:33:36.937Z</time></trkpt><trkpt lat="40.21266879003635" lon="8.782970502290606"><ele>429.0</ele><time>2026-04-26T12:33:37.937Z</time></trkpt><trkpt lat="40.212543281530934" lon="8.782890748650438"><ele>429.0</ele><time>2026-04-26T12:33:38.937Z</time></trkpt><trkpt lat="40.21241743546892" lon="8.782801614082757"><ele>429.0</ele><time>2026-04-26T12:33:39.937Z</time></trkpt><trkpt lat="40.21229693404139" lon="8.7826933446588"><ele>429.0</ele><time>2026-04-26T12:33:40.937Z</time></trkpt><trkpt lat="40.21217938285618" lon="8.782584436412927"><ele>429.0</ele><time>2026-04-26T12:33:41.937Z</time></trkpt><trkpt lat="40.21206621766696" lon="8.782480078798022"><ele>428.5</ele><time>2026-04-26T12:33:42.937Z</time></trkpt><trkpt lat="40.21195847926165" lon="8.7823825845457"><ele>428.0</ele><time>2026-04-26T12:33:43.937Z</time></trkpt><trkpt lat="40.211850260488575" lon="8.782295558273235"><ele>427.5</ele><time>2026-04-26T12:33:44.937Z</time></trkpt><trkpt lat="40.211743403445816" lon="8.782226478459725"><ele>427.0</ele><time>2026-04-26T12:33:45.937Z</time></trkpt><trkpt lat="40.211637814251254" lon="8.782171751983913"><ele>427.0</ele><time>2026-04-26T12:33:46.937Z</time></trkpt><trkpt lat="40.21153383228901" lon="8.782138251802916"><ele>427.00000000000006</ele><time>2026-04-26T12:33:47.937Z</time></trkpt><trkpt lat="40.211434052229826" lon="8.78212576488627"><ele>427.00000000000006</ele><time>2026-04-26T12:33:48.937Z</time></trkpt><trkpt lat="40.211339434075335" lon="8.782132661022448"><ele>427.0</ele><time>2026-04-26T12:33:49.937Z</time></trkpt><trkpt lat="40.2112593306046" lon="8.78215571417361"><ele>427.0</ele><time>2026-04-26T12:33:50.937Z</time></trkpt><trkpt lat="40.211158571339524" lon="8.782232698842853"><ele>427.00000000000006</ele><time>2026-04-26T12:33:52.937Z</time></trkpt><trkpt lat="40.21111548039939" lon="8.78230410225806"><ele>427.0</ele><time>2026-04-26T12:33:54.937Z</time></trkpt><trkpt lat="40.21109025116648" lon="8.782385737043208"><ele>427.0</ele><time>2026-04-26T12:33:57.937Z</time></trkpt><trkpt lat="40.21106270035097" lon="8.782466167898592"><ele>427.0</ele><time>2026-04-26T12:34:05.938Z</time></trkpt><trkpt lat="40.21095614581592" lon="8.782415568449714"><ele>427.00000000000006</ele><time>2026-04-26T12:34:09.938Z</time></trkpt><trkpt lat="40.21091311007466" lon="8.78234682945427"><ele>427.0</ele><time>2026-04-26T12:34:10.938Z</time></trkpt><trkpt lat="40.21086941558102" lon="8.782268876828253"><ele>427.00000000000006</ele><time>2026-04-26T12:34:11.938Z</time></trkpt><trkpt lat="40.21082268405983" lon="8.782181436884128"><ele>427.0</ele><time>2026-04-26T12:34:12.938Z</time></trkpt><trkpt lat="40.210775473616124" lon="8.782092279166124"><ele>427.0</ele><time>2026-04-26T12:34:13.938Z</time></trkpt><trkpt lat="40.210728980289005" lon="8.781997516345616"><ele>427.0</ele><time>2026-04-26T12:34:14.938Z</time></trkpt><trkpt lat="40.210688633850204" lon="8.781884625764928"><ele>427.00000000000006</ele><time>2026-04-26T12:34:15.938Z</time></trkpt><trkpt lat="40.21064423166244" lon="8.781763267983742"><ele>427.0</ele><time>2026-04-26T12:34:16.938Z</time></trkpt><trkpt lat="40.21060193275468" lon="8.781647316384317"><ele>427.1666666666667</ele><time>2026-04-26T12:34:17.938Z</time></trkpt><trkpt lat="40.210573141361614" lon="8.78155149278981"><ele>427.33333333333337</ele><time>2026-04-26T12:34:18.938Z</time></trkpt><trkpt lat="40.21053091934842" lon="8.78141405475527"><ele>427.5</ele><time>2026-04-26T12:34:20.938Z</time></trkpt><trkpt lat="40.21047826103978" lon="8.781328149110422"><ele>427.66666666666663</ele><time>2026-04-26T12:34:22.938Z</time></trkpt><trkpt lat="40.210426444852715" lon="8.781281022171509"><ele>427.8333333333333</ele><time>2026-04-26T12:34:24.938Z</time></trkpt><trkpt lat="40.210342471126644" lon="8.781247774059375"><ele>428.0</ele><time>2026-04-26T12:36:06.939Z</time></trkpt><trkpt lat="40.21027147620363" lon="8.781249742074012"><ele>428.0</ele><time>2026-04-26T12:36:08.939Z</time></trkpt><trkpt lat="40.21019928339253" lon="8.781301897014123"><ele>427.99999999999994</ele><time>2026-04-26T12:36:10.939Z</time></trkpt><trkpt lat="40.2101483720872" lon="8.78138388112605"><ele>427.99999999999994</ele><time>2026-04-26T12:36:12.939Z</time></trkpt><trkpt lat="40.21010585721136" lon="8.781489573089617"><ele>428.0</ele><time>2026-04-26T12:36:14.939Z</time></trkpt><trkpt lat="40.21007482175675" lon="8.781613095233569"><ele>428.0</ele><time>2026-04-26T12:36:16.939Z</time></trkpt><trkpt lat="40.21003426736826" lon="8.781737700440882"><ele>428.0</ele><time>2026-04-26T12:36:18.939Z</time></trkpt><trkpt lat="40.210002429961406" lon="8.781854094621817"><ele>427.99999999999994</ele><time>2026-04-26T12:36:20.939Z</time></trkpt><trkpt lat="40.20996740125805" lon="8.781972182480516"><ele>427.99999999999994</ele><time>2026-04-26T12:36:22.939Z</time></trkpt><trkpt lat="40.20993473378721" lon="8.782093727400612"><ele>428.0</ele><time>2026-04-26T12:36:24.939Z</time></trkpt><trkpt lat="40.20992313722308" lon="8.782175070982786"><ele>428.0</ele><time>2026-04-26T12:36:27.939Z</time></trkpt><trkpt lat="40.20995141937852" lon="8.782050194905992"><ele>428.0</ele><time>2026-04-26T12:36:32.939Z</time></trkpt><trkpt lat="40.21005158818594" lon="8.78198303851521"><ele>428.0</ele><time>2026-04-26T12:36:33.939Z</time></trkpt><trkpt lat="40.21014871252008" lon="8.781904341937455"><ele>428.0</ele><time>2026-04-26T12:36:35.939Z</time></trkpt><trkpt lat="40.210267344678805" lon="8.781866598308346"><ele>428.0</ele><time>2026-04-26T12:36:37.939Z</time></trkpt><trkpt lat="40.21038768165629" lon="8.78187063357194"><ele>427.99999999999994</ele><time>2026-04-26T12:36:39.939Z</time></trkpt><trkpt lat="40.210452104484425" lon="8.781895278202194"><ele>428.0</ele><time>2026-04-26T12:36:40.939Z</time></trkpt><trkpt lat="40.210525880198304" lon="8.781902781431455"><ele>428.0</ele><time>2026-04-26T12:36:41.939Z</time></trkpt><trkpt lat="40.21059468643647" lon="8.78199452422274"><ele>428.0</ele><time>2026-04-26T12:36:42.939Z</time></trkpt><trkpt lat="40.21068167642741" lon="8.782046393175992"><ele>427.99999999999994</ele><time>2026-04-26T12:36:43.939Z</time></trkpt><trkpt lat="40.21075225638755" lon="8.7821070447187"><ele>428.0</ele><time>2026-04-26T12:36:44.939Z</time></trkpt><trkpt lat="40.21079517461157" lon="8.782218452185699"><ele>427.8333333333333</ele><time>2026-04-26T12:36:45.939Z</time></trkpt><trkpt lat="40.21085162523189" lon="8.782288374281634"><ele>427.66666666666663</ele><time>2026-04-26T12:36:46.94Z</time></trkpt><trkpt lat="40.21090868641559" lon="8.782359538075806"><ele>427.5</ele><time>2026-04-26T12:36:47.94Z</time></trkpt><trkpt lat="40.21096144810981" lon="8.78243252151728"><ele>427.33333333333337</ele><time>2026-04-26T12:36:48.94Z</time></trkpt><trkpt lat="40.21101703472655" lon="8.782506543779162"><ele>427.1666666666667</ele><time>2026-04-26T12:36:49.94Z</time></trkpt><trkpt lat="40.2110721721623" lon="8.782580232393599"><ele>427.0</ele><time>2026-04-26T12:36:50.94Z</time></trkpt><trkpt lat="40.21112987122205" lon="8.782654492569128"><ele>426.7142857142857</ele><time>2026-04-26T12:36:51.94Z</time></trkpt><trkpt lat="40.21118723599986" lon="8.782727335697476"><ele>426.42857142857144</ele><time>2026-04-26T12:36:52.94Z</time></trkpt><trkpt lat="40.21124487397176" lon="8.782799769180109"><ele>426.1428571428571</ele><time>2026-04-26T12:36:53.94Z</time></trkpt><trkpt lat="40.21129803751703" lon="8.782869228586973"><ele>425.8571428571429</ele><time>2026-04-26T12:36:54.94Z</time></trkpt><trkpt lat="40.211342557956144" lon="8.782936917470522"><ele>425.57142857142856</ele><time>2026-04-26T12:36:55.94Z</time></trkpt><trkpt lat="40.21138461831948" lon="8.783008669743005"><ele>425.2857142857143</ele><time>2026-04-26T12:36:56.94Z</time></trkpt><trkpt lat="40.21143269096583" lon="8.783067516729314"><ele>425.0</ele><time>2026-04-26T12:36:57.94Z</time></trkpt><trkpt lat="40.21143432002751" lon="8.783177902583153"><ele>424.99999999999994</ele><time>2026-04-26T12:36:58.94Z</time></trkpt><trkpt lat="40.21144383549916" lon="8.783274616489539"><ele>425.0</ele><time>2026-04-26T12:36:59.94Z</time></trkpt><trkpt lat="40.21144091235593" lon="8.783375633094892"><ele>425.0</ele><time>2026-04-26T12:37:00.94Z</time></trkpt><trkpt lat="40.21142250429026" lon="8.783478227229336"><ele>425.0</ele><time>2026-04-26T12:37:01.94Z</time></trkpt><trkpt lat="40.21139002462491" lon="8.783574955514148"><ele>424.99999999999994</ele><time>2026-04-26T12:37:02.94Z</time></trkpt><trkpt lat="40.21134157353911" lon="8.783657639870226"><ele>425.0</ele><time>2026-04-26T12:37:03.94Z</time></trkpt><trkpt lat="40.21128379778177" lon="8.783723431261542"><ele>424.8</ele><time>2026-04-26T12:37:04.94Z</time></trkpt><trkpt lat="40.21120892075247" lon="8.783760434334761"><ele>424.6</ele><time>2026-04-26T12:37:05.94Z</time></trkpt><trkpt lat="40.21112191911043" lon="8.783788252627978"><ele>424.4</ele><time>2026-04-26T12:37:06.94Z</time></trkpt><trkpt lat="40.211038418674725" lon="8.783837914492757"><ele>424.2</ele><time>2026-04-26T12:37:07.94Z</time></trkpt><trkpt lat="40.2109311632111" lon="8.783841071061493"><ele>424.0</ele><time>2026-04-26T12:37:08.94Z</time></trkpt><trkpt lat="40.21083056772849" lon="8.783863677782685"><ele>424.0</ele><time>2026-04-26T12:37:09.94Z</time></trkpt><trkpt lat="40.21072283031961" lon="8.783880553341369"><ele>424.0</ele><time>2026-04-26T12:37:10.94Z</time></trkpt><trkpt lat="40.21061252960205" lon="8.7839008001678"><ele>424.0</ele><time>2026-04-26T12:37:11.94Z</time></trkpt><trkpt lat="40.21049934348343" lon="8.783923045656836"><ele>424.0</ele><time>2026-04-26T12:37:12.94Z</time></trkpt><trkpt lat="40.210381992331534" lon="8.783943742345784"><ele>424.25</ele><time>2026-04-26T12:37:13.94Z</time></trkpt><trkpt lat="40.21026011641163" lon="8.78396461633663"><ele>424.5</ele><time>2026-04-26T12:37:14.94Z</time></trkpt><trkpt lat="40.2101356382361" lon="8.78398612356841"><ele>424.75</ele><time>2026-04-26T12:37:15.939Z</time></trkpt><trkpt lat="40.21000955605297" lon="8.784007113329542"><ele>425.0</ele><time>2026-04-26T12:37:16.938Z</time></trkpt><trkpt lat="40.20987913239782" lon="8.784030838418722"><ele>424.25</ele><time>2026-04-26T12:37:17.936Z</time></trkpt><trkpt lat="40.20975120580218" lon="8.784049457172662"><ele>423.5</ele><time>2026-04-26T12:37:18.935Z</time></trkpt><trkpt lat="40.20962011635285" lon="8.784066714459145"><ele>422.75</ele><time>2026-04-26T12:37:19.934Z</time></trkpt><trkpt lat="40.20949042545098" lon="8.784087705167714"><ele>422.0</ele><time>2026-04-26T12:37:20.934Z</time></trkpt><trkpt lat="40.20935501129377" lon="8.784115369174403"><ele>422.0</ele><time>2026-04-26T12:37:21.933Z</time></trkpt><trkpt lat="40.20921786039415" lon="8.784136679460692"><ele>422.0</ele><time>2026-04-26T12:37:22.932Z</time></trkpt><trkpt lat="40.209075598941" lon="8.78415689556962"><ele>422.0</ele><time>2026-04-26T12:37:23.931Z</time></trkpt><trkpt lat="40.20893101784617" lon="8.784175735200527"><ele>422.0</ele><time>2026-04-26T12:37:24.93Z</time></trkpt><trkpt lat="40.20878529382378" lon="8.784195379690983"><ele>422.3333333333333</ele><time>2026-04-26T12:37:25.93Z</time></trkpt><trkpt lat="40.208633904873395" lon="8.784213447266396"><ele>422.66666666666663</ele><time>2026-04-26T12:37:26.929Z</time></trkpt><trkpt lat="40.20847958903594" lon="8.784232753800815"><ele>423.0</ele><time>2026-04-26T12:37:27.927Z</time></trkpt><trkpt lat="40.20833157390449" lon="8.784256814251462"><ele>423.0</ele><time>2026-04-26T12:37:28.927Z</time></trkpt><trkpt lat="40.20818499196247" lon="8.784283167137753"><ele>423.0</ele><time>2026-04-26T12:37:29.926Z</time></trkpt><trkpt lat="40.20803725769707" lon="8.784305578057923"><ele>423.0</ele><time>2026-04-26T12:37:30.925Z</time></trkpt><trkpt lat="40.207886447163986" lon="8.784331421985994"><ele>423.0</ele><time>2026-04-26T12:37:31.925Z</time></trkpt><trkpt lat="40.20773436885765" lon="8.784356707639509"><ele>422.33333333333337</ele><time>2026-04-26T12:37:32.924Z</time></trkpt><trkpt lat="40.20758237653074" lon="8.784389586805618"><ele>421.6666666666667</ele><time>2026-04-26T12:37:33.924Z</time></trkpt><trkpt lat="40.20742981444517" lon="8.784424736958133"><ele>421.0</ele><time>2026-04-26T12:37:34.924Z</time></trkpt><trkpt lat="40.20727858018603" lon="8.78445937516516"><ele>420.33333333333337</ele><time>2026-04-26T12:37:35.923Z</time></trkpt><trkpt lat="40.20712726665131" lon="8.784497423854026"><ele>419.66666666666663</ele><time>2026-04-26T12:37:36.923Z</time></trkpt><trkpt lat="40.20697455703235" lon="8.784534176855963"><ele>419.0</ele><time>2026-04-26T12:37:37.922Z</time></trkpt><trkpt lat="40.20682333463011" lon="8.78457880765658"><ele>419.0</ele><time>2026-04-26T12:37:38.922Z</time></trkpt><trkpt lat="40.20666880762489" lon="8.784625629146271"><ele>419.0</ele><time>2026-04-26T12:37:39.922Z</time></trkpt><trkpt lat="40.20652013241408" lon="8.784671449166673"><ele>419.0</ele><time>2026-04-26T12:37:40.922Z</time></trkpt><trkpt lat="40.20637140514966" lon="8.784726532773135"><ele>418.66666666666663</ele><time>2026-04-26T12:37:41.922Z</time></trkpt><trkpt lat="40.2062205465453" lon="8.784779193639173"><ele>418.33333333333337</ele><time>2026-04-26T12:37:42.921Z</time></trkpt><trkpt lat="40.20607048307671" lon="8.784832526774734"><ele>418.0</ele><time>2026-04-26T12:37:43.921Z</time></trkpt><trkpt lat="40.20591775961091" lon="8.784885545074852"><ele>418.0</ele><time>2026-04-26T12:37:44.921Z</time></trkpt><trkpt lat="40.20576486776112" lon="8.784945900610296"><ele>418.0</ele><time>2026-04-26T12:37:45.921Z</time></trkpt><trkpt lat="40.205611101143624" lon="8.785007380851258"><ele>418.0</ele><time>2026-04-26T12:37:46.921Z</time></trkpt><trkpt lat="40.20546209000727" lon="8.785071104303782"><ele>417.33333333333337</ele><time>2026-04-26T12:37:47.92Z</time></trkpt><trkpt lat="40.20531065270702" lon="8.785135408514973"><ele>416.66666666666663</ele><time>2026-04-26T12:37:48.92Z</time></trkpt><trkpt lat="40.20515970878034" lon="8.785202023662897"><ele>416.0</ele><time>2026-04-26T12:37:49.92Z</time></trkpt><trkpt lat="40.20501170712413" lon="8.78526751365329"><ele>416.0</ele><time>2026-04-26T12:37:50.92Z</time></trkpt><trkpt lat="40.20486479841497" lon="8.785333213981335"><ele>416.0</ele><time>2026-04-26T12:37:51.92Z</time></trkpt><trkpt lat="40.20471655968001" lon="8.785395272140233"><ele>416.0</ele><time>2026-04-26T12:37:52.92Z</time></trkpt><trkpt lat="40.204564037651934" lon="8.785459713166"><ele>415.0</ele><time>2026-04-26T12:37:53.92Z</time></trkpt><trkpt lat="40.204415711816665" lon="8.785523225784653"><ele>414.0</ele><time>2026-04-26T12:37:54.92Z</time></trkpt><trkpt lat="40.20426775923799" lon="8.785588673895267"><ele>413.0</ele><time>2026-04-26T12:37:55.92Z</time></trkpt><trkpt lat="40.20411684955879" lon="8.78565870665759"><ele>413.0</ele><time>2026-04-26T12:37:56.92Z</time></trkpt><trkpt lat="40.20395385905292" lon="8.78573506994675"><ele>413.0</ele><time>2026-04-26T12:37:57.919Z</time></trkpt><trkpt lat="40.20379261933621" lon="8.785803909524619"><ele>413.0</ele><time>2026-04-26T12:37:58.919Z</time></trkpt><trkpt lat="40.20363428141546" lon="8.785866938951191"><ele>413.0</ele><time>2026-04-26T12:37:59.919Z</time></trkpt><trkpt lat="40.20347715993509" lon="8.785941301671597"><ele>413.0</ele><time>2026-04-26T12:38:00.919Z</time></trkpt><trkpt lat="40.20332022392188" lon="8.786011700148851"><ele>413.0</ele><time>2026-04-26T12:38:01.919Z</time></trkpt><trkpt lat="40.20316139788772" lon="8.78607934720328"><ele>412.0</ele><time>2026-04-26T12:38:02.919Z</time></trkpt><trkpt lat="40.20300688555365" lon="8.786146293385297"><ele>411.0</ele><time>2026-04-26T12:38:03.919Z</time></trkpt><trkpt lat="40.20285025440481" lon="8.786213162795748"><ele>410.0</ele><time>2026-04-26T12:38:04.919Z</time></trkpt><trkpt lat="40.20269452297988" lon="8.78628367853836"><ele>410.0</ele><time>2026-04-26T12:38:05.919Z</time></trkpt><trkpt lat="40.20253854992477" lon="8.786350627783538"><ele>410.0</ele><time>2026-04-26T12:38:06.919Z</time></trkpt><trkpt lat="40.20237856790749" lon="8.786425763220322"><ele>410.0</ele><time>2026-04-26T12:38:07.919Z</time></trkpt><trkpt lat="40.20221675615755" lon="8.78649141473374"><ele>409.66666666666663</ele><time>2026-04-26T12:38:08.919Z</time></trkpt><trkpt lat="40.20205627433641" lon="8.786561289819781"><ele>409.33333333333337</ele><time>2026-04-26T12:38:09.919Z</time></trkpt><trkpt lat="40.20189063558193" lon="8.786632474172713"><ele>409.0</ele><time>2026-04-26T12:38:10.919Z</time></trkpt><trkpt lat="40.20172786636426" lon="8.786698459132479"><ele>409.0</ele><time>2026-04-26T12:38:11.919Z</time></trkpt><trkpt lat="40.20156598729482" lon="8.78677381901927"><ele>409.0</ele><time>2026-04-26T12:38:12.919Z</time></trkpt><trkpt lat="40.201403697083975" lon="8.786844394552062"><ele>409.0</ele><time>2026-04-26T12:38:13.919Z</time></trkpt><trkpt lat="40.20123729064064" lon="8.786917285715875"><ele>407.6666666666667</ele><time>2026-04-26T12:38:14.919Z</time></trkpt><trkpt lat="40.201071972451" lon="8.78698608485319"><ele>406.33333333333337</ele><time>2026-04-26T12:38:15.919Z</time></trkpt><trkpt lat="40.20091159979893" lon="8.787056437369873"><ele>405.0</ele><time>2026-04-26T12:38:16.919Z</time></trkpt><trkpt lat="40.20075282805063" lon="8.787126694295285"><ele>403.66666666666663</ele><time>2026-04-26T12:38:17.919Z</time></trkpt><trkpt lat="40.20059217182168" lon="8.78719805597595"><ele>402.3333333333333</ele><time>2026-04-26T12:38:18.919Z</time></trkpt><trkpt lat="40.2004298493082" lon="8.787268762440007"><ele>401.0</ele><time>2026-04-26T12:38:19.919Z</time></trkpt><trkpt lat="40.20026939354293" lon="8.787339962576523"><ele>401.0</ele><time>2026-04-26T12:38:20.919Z</time></trkpt><trkpt lat="40.200113002896515" lon="8.787409709313215"><ele>401.0</ele><time>2026-04-26T12:38:21.919Z</time></trkpt><trkpt lat="40.199958019753446" lon="8.78747742455607"><ele>401.0</ele><time>2026-04-26T12:38:22.919Z</time></trkpt><trkpt lat="40.19980297927608" lon="8.787545337959846"><ele>400.0</ele><time>2026-04-26T12:38:23.919Z</time></trkpt><trkpt lat="40.19964914594589" lon="8.787613952247337"><ele>399.0</ele><time>2026-04-26T12:38:24.919Z</time></trkpt><trkpt lat="40.19949664011417" lon="8.787679741549653"><ele>398.0</ele><time>2026-04-26T12:38:25.919Z</time></trkpt><trkpt lat="40.1993475485394" lon="8.787743812329092"><ele>396.66666666666663</ele><time>2026-04-26T12:38:26.919Z</time></trkpt><trkpt lat="40.19918999929282" lon="8.787815358572736"><ele>395.33333333333337</ele><time>2026-04-26T12:38:27.919Z</time></trkpt><trkpt lat="40.199032262682266" lon="8.787890778009391"><ele>394.0</ele><time>2026-04-26T12:38:28.919Z</time></trkpt><trkpt lat="40.19887483445806" lon="8.787965030014892"><ele>392.33333333333337</ele><time>2026-04-26T12:38:29.919Z</time></trkpt><trkpt lat="40.198720432863276" lon="8.788032636195007"><ele>390.66666666666663</ele><time>2026-04-26T12:38:30.919Z</time></trkpt><trkpt lat="40.19856446570797" lon="8.788104322177102"><ele>389.0</ele><time>2026-04-26T12:38:31.919Z</time></trkpt><trkpt lat="40.198413621512714" lon="8.788168806051603"><ele>389.0</ele><time>2026-04-26T12:38:32.919Z</time></trkpt><trkpt lat="40.19825783982848" lon="8.788234760976684"><ele>389.0</ele><time>2026-04-26T12:38:33.919Z</time></trkpt><trkpt lat="40.198102105073104" lon="8.788293342432754"><ele>389.0</ele><time>2026-04-26T12:38:34.919Z</time></trkpt><trkpt lat="40.197945442459186" lon="8.788349458295933"><ele>387.3333333333333</ele><time>2026-04-26T12:38:35.919Z</time></trkpt><trkpt lat="40.19778718395955" lon="8.788406777016244"><ele>385.66666666666663</ele><time>2026-04-26T12:38:36.919Z</time></trkpt><trkpt lat="40.197627874560425" lon="8.788464662542399"><ele>384.0</ele><time>2026-04-26T12:38:37.919Z</time></trkpt><trkpt lat="40.19746757210978" lon="8.788521543727985"><ele>382.6666666666667</ele><time>2026-04-26T12:38:38.919Z</time></trkpt><trkpt lat="40.19730459063191" lon="8.78858070227789"><ele>381.33333333333337</ele><time>2026-04-26T12:38:39.919Z</time></trkpt><trkpt lat="40.19714136295352" lon="8.788639560814582"><ele>380.0</ele><time>2026-04-26T12:38:40.919Z</time></trkpt><trkpt lat="40.19697700109241" lon="8.788697756443593"><ele>380.0</ele><time>2026-04-26T12:38:41.919Z</time></trkpt><trkpt lat="40.196814958348234" lon="8.788754235148573"><ele>380.0</ele><time>2026-04-26T12:38:42.919Z</time></trkpt><trkpt lat="40.19665029930012" lon="8.788809687797153"><ele>380.0</ele><time>2026-04-26T12:38:43.919Z</time></trkpt><trkpt lat="40.196483594234046" lon="8.788867038241353"><ele>380.0</ele><time>2026-04-26T12:38:44.919Z</time></trkpt><trkpt lat="40.196316232016905" lon="8.788921199436437"><ele>380.0</ele><time>2026-04-26T12:38:45.919Z</time></trkpt><trkpt lat="40.196147066281114" lon="8.788978295353523"><ele>380.0</ele><time>2026-04-26T12:38:46.919Z</time></trkpt><trkpt lat="40.19597913951641" lon="8.789035928876416"><ele>380.0</ele><time>2026-04-26T12:38:47.919Z</time></trkpt><trkpt lat="40.19580952611795" lon="8.7890960609569"><ele>380.0</ele><time>2026-04-26T12:38:48.919Z</time></trkpt><trkpt lat="40.19564053633689" lon="8.789157362721127"><ele>380.0</ele><time>2026-04-26T12:38:49.919Z</time></trkpt><trkpt lat="40.19547291949247" lon="8.789217316181551"><ele>380.0</ele><time>2026-04-26T12:38:50.919Z</time></trkpt><trkpt lat="40.19530609488764" lon="8.789275902963709"><ele>380.0</ele><time>2026-04-26T12:38:51.919Z</time></trkpt><trkpt lat="40.19513887614543" lon="8.7893360158276"><ele>380.0</ele><time>2026-04-26T12:38:52.919Z</time></trkpt><trkpt lat="40.19497150795101" lon="8.789394867990199"><ele>379.33333333333337</ele><time>2026-04-26T12:38:53.919Z</time></trkpt><trkpt lat="40.19480534755243" lon="8.789451114114211"><ele>378.6666666666667</ele><time>2026-04-26T12:38:54.919Z</time></trkpt><trkpt lat="40.19463914573088" lon="8.789505833791692"><ele>378.0</ele><time>2026-04-26T12:38:55.919Z</time></trkpt><trkpt lat="40.19447480796161" lon="8.789557976865346"><ele>378.0</ele><time>2026-04-26T12:38:56.919Z</time></trkpt><trkpt lat="40.19430977038917" lon="8.78960941081622"><ele>378.0</ele><time>2026-04-26T12:38:57.919Z</time></trkpt><trkpt lat="40.19414328024657" lon="8.789662951957263"><ele>378.0</ele><time>2026-04-26T12:38:58.919Z</time></trkpt><trkpt lat="40.19397640938633" lon="8.789717511268227"><ele>378.0</ele><time>2026-04-26T12:38:59.919Z</time></trkpt><trkpt lat="40.193809732429024" lon="8.7897681844903"><ele>378.0</ele><time>2026-04-26T12:39:00.919Z</time></trkpt><trkpt lat="40.193639482079945" lon="8.789815899892632"><ele>378.0</ele><time>2026-04-26T12:39:01.919Z</time></trkpt><trkpt lat="40.193467079923785" lon="8.789865003303868"><ele>378.0</ele><time>2026-04-26T12:39:02.919Z</time></trkpt><trkpt lat="40.193292579399085" lon="8.789907736576932"><ele>378.0</ele><time>2026-04-26T12:39:03.919Z</time></trkpt><trkpt lat="40.193115579413636" lon="8.789946734113165"><ele>378.0</ele><time>2026-04-26T12:39:04.919Z</time></trkpt><trkpt lat="40.19293622237707" lon="8.789983155313816"><ele>377.6666666666667</ele><time>2026-04-26T12:39:05.919Z</time></trkpt><trkpt lat="40.19275619031978" lon="8.790014163011913"><ele>377.33333333333337</ele><time>2026-04-26T12:39:06.919Z</time></trkpt><trkpt lat="40.19257708180978" lon="8.790040690123975"><ele>377.0</ele><time>2026-04-26T12:39:07.919Z</time></trkpt><trkpt lat="40.192400687815706" lon="8.790064437362393"><ele>377.0</ele><time>2026-04-26T12:39:08.919Z</time></trkpt><trkpt lat="40.192224959970076" lon="8.79008309948904"><ele>377.0</ele><time>2026-04-26T12:39:09.919Z</time></trkpt><trkpt lat="40.192047907735166" lon="8.79009892513844"><ele>377.0</ele><time>2026-04-26T12:39:10.919Z</time></trkpt><trkpt lat="40.191869041701075" lon="8.790108879661137"><ele>377.0</ele><time>2026-04-26T12:39:11.919Z</time></trkpt><trkpt lat="40.191693752892824" lon="8.790114347281074"><ele>377.0</ele><time>2026-04-26T12:39:12.919Z</time></trkpt><trkpt lat="40.19152088805794" lon="8.790112460377694"><ele>377.0</ele><time>2026-04-26T12:39:13.919Z</time></trkpt><trkpt lat="40.1913449184733" lon="8.790114569398302"><ele>377.33333333333337</ele><time>2026-04-26T12:39:14.919Z</time></trkpt><trkpt lat="40.19117230564016" lon="8.790115073617232"><ele>377.6666666666667</ele><time>2026-04-26T12:39:15.919Z</time></trkpt><trkpt lat="40.19100215962262" lon="8.790116266375122"><ele>378.0</ele><time>2026-04-26T12:39:16.919Z</time></trkpt><trkpt lat="40.19082866428993" lon="8.790122912614725"><ele>377.3333333333333</ele><time>2026-04-26T12:39:17.919Z</time></trkpt><trkpt lat="40.1906543819625" lon="8.790131062329172"><ele>376.66666666666663</ele><time>2026-04-26T12:39:18.919Z</time></trkpt><trkpt lat="40.190480091254116" lon="8.790145524999346"><ele>376.0</ele><time>2026-04-26T12:39:19.919Z</time></trkpt><trkpt lat="40.19030271252951" lon="8.790164181933767"><ele>376.0</ele><time>2026-04-26T12:39:20.919Z</time></trkpt><trkpt lat="40.19012679967439" lon="8.79018713123466"><ele>376.0</ele><time>2026-04-26T12:39:21.919Z</time></trkpt><trkpt lat="40.18995004170387" lon="8.790213899060117"><ele>376.0</ele><time>2026-04-26T12:39:22.919Z</time></trkpt><trkpt lat="40.18977214527553" lon="8.790245470484537"><ele>376.0</ele><time>2026-04-26T12:39:23.919Z</time></trkpt><trkpt lat="40.18959183946088" lon="8.790280386814755"><ele>376.0</ele><time>2026-04-26T12:39:24.919Z</time></trkpt><trkpt lat="40.18941093450611" lon="8.790316857967007"><ele>376.0</ele><time>2026-04-26T12:39:25.919Z</time></trkpt><trkpt lat="40.189231050515936" lon="8.790357183078621"><ele>376.0</ele><time>2026-04-26T12:39:26.919Z</time></trkpt><trkpt lat="40.189051893465646" lon="8.790400935284588"><ele>376.0</ele><time>2026-04-26T12:39:27.919Z</time></trkpt><trkpt lat="40.188873419799016" lon="8.79044712458502"><ele>376.0</ele><time>2026-04-26T12:39:28.919Z</time></trkpt><trkpt lat="40.18869661572701" lon="8.7904907062678"><ele>376.0</ele><time>2026-04-26T12:39:29.919Z</time></trkpt><trkpt lat="40.188522325004385" lon="8.790531531824508"><ele>376.0</ele><time>2026-04-26T12:39:30.919Z</time></trkpt><trkpt lat="40.1883524509434" lon="8.790574359124834"><ele>376.0</ele><time>2026-04-26T12:39:31.919Z</time></trkpt><trkpt lat="40.188182669779756" lon="8.790617949904696"><ele>375.66666666666663</ele><time>2026-04-26T12:39:32.919Z</time></trkpt><trkpt lat="40.18801374308993" lon="8.790659934703427"><ele>375.3333333333333</ele><time>2026-04-26T12:39:33.918Z</time></trkpt><trkpt lat="40.18784849523291" lon="8.790698103404432"><ele>375.0</ele><time>2026-04-26T12:39:34.918Z</time></trkpt><trkpt lat="40.187686663199464" lon="8.790743033716504"><ele>375.0</ele><time>2026-04-26T12:39:35.918Z</time></trkpt><trkpt lat="40.187522133090084" lon="8.790782234725565"><ele>375.0</ele><time>2026-04-26T12:39:36.918Z</time></trkpt><trkpt lat="40.18735585169104" lon="8.79082629931825"><ele>375.0</ele><time>2026-04-26T12:39:37.917Z</time></trkpt><trkpt lat="40.187187338027634" lon="8.790868903439254"><ele>374.6666666666667</ele><time>2026-04-26T12:39:38.917Z</time></trkpt><trkpt lat="40.18701915577843" lon="8.790912752696274"><ele>374.33333333333337</ele><time>2026-04-26T12:39:39.918Z</time></trkpt><trkpt lat="40.18684582406365" lon="8.790960404414458"><ele>374.0</ele><time>2026-04-26T12:39:40.918Z</time></trkpt><trkpt lat="40.18667299959062" lon="8.791013993138169"><ele>374.0</ele><time>2026-04-26T12:39:41.918Z</time></trkpt><trkpt lat="40.186502552600054" lon="8.79106298758208"><ele>374.0</ele><time>2026-04-26T12:39:42.918Z</time></trkpt><trkpt lat="40.18633095399961" lon="8.791108477579982"><ele>374.0</ele><time>2026-04-26T12:39:43.917Z</time></trkpt><trkpt lat="40.1861563290507" lon="8.791150320449495"><ele>374.0</ele><time>2026-04-26T12:39:44.917Z</time></trkpt><trkpt lat="40.185988716159166" lon="8.791193577539516"><ele>374.0</ele><time>2026-04-26T12:39:45.917Z</time></trkpt><trkpt lat="40.18581216777645" lon="8.791237728196013"><ele>374.0</ele><time>2026-04-26T12:39:46.918Z</time></trkpt><trkpt lat="40.185639004732025" lon="8.791283241319352"><ele>373.33333333333337</ele><time>2026-04-26T12:39:47.918Z</time></trkpt><trkpt lat="40.18546806595452" lon="8.791323969718983"><ele>372.6666666666667</ele><time>2026-04-26T12:39:48.918Z</time></trkpt><trkpt lat="40.185292644839414" lon="8.791371417811927"><ele>372.0</ele><time>2026-04-26T12:39:49.918Z</time></trkpt><trkpt lat="40.185121625728996" lon="8.791413345973432"><ele>372.0</ele><time>2026-04-26T12:39:50.918Z</time></trkpt><trkpt lat="40.184947033781285" lon="8.79145929902755"><ele>372.0</ele><time>2026-04-26T12:39:51.918Z</time></trkpt><trkpt lat="40.18477169114257" lon="8.791508188326171"><ele>372.0</ele><time>2026-04-26T12:39:52.918Z</time></trkpt><trkpt lat="40.1845962356767" lon="8.791556616723588"><ele>371.0</ele><time>2026-04-26T12:39:53.918Z</time></trkpt><trkpt lat="40.18442411163819" lon="8.791600978428583"><ele>370.0</ele><time>2026-04-26T12:39:54.918Z</time></trkpt><trkpt lat="40.184245889980474" lon="8.79165183356699"><ele>369.0</ele><time>2026-04-26T12:39:55.918Z</time></trkpt><trkpt lat="40.18406993952523" lon="8.791695759731804"><ele>367.6666666666667</ele><time>2026-04-26T12:39:56.918Z</time></trkpt><trkpt lat="40.1838942052857" lon="8.791737634712659"><ele>366.33333333333337</ele><time>2026-04-26T12:39:57.918Z</time></trkpt><trkpt lat="40.18372037831399" lon="8.791780752056994"><ele>365.0</ele><time>2026-04-26T12:39:58.918Z</time></trkpt><trkpt lat="40.183547312209946" lon="8.791823911940984"><ele>365.33333333333337</ele><time>2026-04-26T12:39:59.918Z</time></trkpt><trkpt lat="40.183371184823685" lon="8.791870749879708"><ele>365.6666666666667</ele><time>2026-04-26T12:40:00.918Z</time></trkpt><trkpt lat="40.18319888821878" lon="8.791917137198347"><ele>366.0</ele><time>2026-04-26T12:40:01.918Z</time></trkpt><trkpt lat="40.18302363723988" lon="8.791967921383607"><ele>364.3333333333333</ele><time>2026-04-26T12:40:02.918Z</time></trkpt><trkpt lat="40.18284982799726" lon="8.792016092825163"><ele>362.66666666666663</ele><time>2026-04-26T12:40:03.918Z</time></trkpt><trkpt lat="40.18267688816478" lon="8.79206258988309"><ele>361.0</ele><time>2026-04-26T12:40:04.918Z</time></trkpt><trkpt lat="40.182503428898876" lon="8.79211106514296"><ele>358.66666666666663</ele><time>2026-04-26T12:40:05.918Z</time></trkpt><trkpt lat="40.182331505028955" lon="8.792154936568497"><ele>356.3333333333333</ele><time>2026-04-26T12:40:06.918Z</time></trkpt><trkpt lat="40.18215721238762" lon="8.792201484856145"><ele>354.0</ele><time>2026-04-26T12:40:07.918Z</time></trkpt><trkpt lat="40.18198450319085" lon="8.792247316939951"><ele>354.0</ele><time>2026-04-26T12:40:08.918Z</time></trkpt><trkpt lat="40.181812472391" lon="8.792292499133914"><ele>354.0</ele><time>2026-04-26T12:40:09.918Z</time></trkpt><trkpt lat="40.18164043322316" lon="8.792342642729194"><ele>354.0</ele><time>2026-04-26T12:40:10.918Z</time></trkpt><trkpt lat="40.18147255445351" lon="8.792389552994821"><ele>354.3333333333333</ele><time>2026-04-26T12:40:11.918Z</time></trkpt><trkpt lat="40.181306145229" lon="8.79244376830428"><ele>354.66666666666663</ele><time>2026-04-26T12:40:12.918Z</time></trkpt><trkpt lat="40.18114395653536" lon="8.792497941931545"><ele>355.0</ele><time>2026-04-26T12:40:13.918Z</time></trkpt><trkpt lat="40.18098034473643" lon="8.792555365899275"><ele>355.0</ele><time>2026-04-26T12:40:14.918Z</time></trkpt><trkpt lat="40.180816628591046" lon="8.79261623721388"><ele>355.0</ele><time>2026-04-26T12:40:15.918Z</time></trkpt><trkpt lat="40.18065443128275" lon="8.79267955174413"><ele>355.0</ele><time>2026-04-26T12:40:16.918Z</time></trkpt><trkpt lat="40.180492630905974" lon="8.792748542930783"><ele>354.66666666666663</ele><time>2026-04-26T12:40:17.918Z</time></trkpt><trkpt lat="40.180330649740476" lon="8.792820178252594"><ele>354.3333333333333</ele><time>2026-04-26T12:40:18.918Z</time></trkpt><trkpt lat="40.18017018561106" lon="8.79290034172021"><ele>354.0</ele><time>2026-04-26T12:40:19.918Z</time></trkpt><trkpt lat="40.1800136916599" lon="8.792989942567594"><ele>354.0</ele><time>2026-04-26T12:40:20.918Z</time></trkpt><trkpt lat="40.17985904037799" lon="8.793081052182755"><ele>354.0</ele><time>2026-04-26T12:40:21.918Z</time></trkpt><trkpt lat="40.1797014581754" lon="8.793184171469436"><ele>354.0</ele><time>2026-04-26T12:40:22.918Z</time></trkpt><trkpt lat="40.17955036750388" lon="8.793287418941853"><ele>353.3333333333333</ele><time>2026-04-26T12:40:23.918Z</time></trkpt><trkpt lat="40.179397912131805" lon="8.793396367492656"><ele>352.66666666666663</ele><time>2026-04-26T12:40:24.918Z</time></trkpt><trkpt lat="40.179248785620636" lon="8.79350367028475"><ele>352.0</ele><time>2026-04-26T12:40:25.918Z</time></trkpt><trkpt lat="40.17909874180732" lon="8.793623862938505"><ele>354.0</ele><time>2026-04-26T12:40:26.918Z</time></trkpt><trkpt lat="40.178953236733406" lon="8.79373688777643"><ele>356.0</ele><time>2026-04-26T12:40:27.918Z</time></trkpt><trkpt lat="40.178806771699534" lon="8.793854823724912"><ele>358.0</ele><time>2026-04-26T12:40:28.918Z</time></trkpt><trkpt lat="40.178665291495605" lon="8.793979214346455"><ele>358.0</ele><time>2026-04-26T12:40:29.919Z</time></trkpt><trkpt lat="40.178525739804314" lon="8.794108142327376"><ele>358.0</ele><time>2026-04-26T12:40:30.919Z</time></trkpt><trkpt lat="40.17838852364038" lon="8.794235022066678"><ele>358.0</ele><time>2026-04-26T12:40:31.919Z</time></trkpt><trkpt lat="40.17825497713913" lon="8.794368035241105"><ele>358.3333333333333</ele><time>2026-04-26T12:40:32.919Z</time></trkpt><trkpt lat="40.17812051070901" lon="8.794499869496493"><ele>358.6666666666667</ele><time>2026-04-26T12:40:33.919Z</time></trkpt><trkpt lat="40.177985085212875" lon="8.794636145116241"><ele>359.0</ele><time>2026-04-26T12:40:34.919Z</time></trkpt><trkpt lat="40.17784742189839" lon="8.794772398014628"><ele>359.0</ele><time>2026-04-26T12:40:35.919Z</time></trkpt><trkpt lat="40.17771026811" lon="8.794911267689596"><ele>359.0</ele><time>2026-04-26T12:40:36.919Z</time></trkpt><trkpt lat="40.17757143431852" lon="8.79504815350336"><ele>359.0</ele><time>2026-04-26T12:40:37.919Z</time></trkpt><trkpt lat="40.17743393140608" lon="8.795180293448652"><ele>359.33333333333337</ele><time>2026-04-26T12:40:38.919Z</time></trkpt><trkpt lat="40.177304717139165" lon="8.79530170248316"><ele>359.6666666666667</ele><time>2026-04-26T12:40:39.919Z</time></trkpt><trkpt lat="40.1771724373132" lon="8.795435475798648"><ele>360.0</ele><time>2026-04-26T12:40:40.919Z</time></trkpt><trkpt lat="40.17704306091332" lon="8.795565792469644"><ele>360.0</ele><time>2026-04-26T12:40:41.919Z</time></trkpt><trkpt lat="40.176917955308234" lon="8.795689083280502"><ele>360.0</ele><time>2026-04-26T12:40:42.919Z</time></trkpt><trkpt lat="40.176788105950564" lon="8.795814074593341"><ele>360.0</ele><time>2026-04-26T12:40:43.919Z</time></trkpt><trkpt lat="40.176656486047634" lon="8.79593383536207"><ele>360.0</ele><time>2026-04-26T12:40:44.919Z</time></trkpt><trkpt lat="40.17652275774698" lon="8.79605254911053"><ele>360.0</ele><time>2026-04-26T12:40:45.919Z</time></trkpt><trkpt lat="40.17636865054086" lon="8.79619789537397"><ele>360.0</ele><time>2026-04-26T12:40:46.919Z</time></trkpt><trkpt lat="40.176212991978026" lon="8.796352414194319"><ele>360.0</ele><time>2026-04-26T12:40:47.919Z</time></trkpt><trkpt lat="40.17605817819754" lon="8.796501586441366"><ele>360.0</ele><time>2026-04-26T12:40:48.919Z</time></trkpt><trkpt lat="40.175901211359324" lon="8.79664024031775"><ele>360.0</ele><time>2026-04-26T12:40:49.919Z</time></trkpt><trkpt lat="40.175749248417915" lon="8.79677708645735"><ele>358.6666666666667</ele><time>2026-04-26T12:40:50.919Z</time></trkpt><trkpt lat="40.1755969474136" lon="8.796899830026566"><ele>357.33333333333337</ele><time>2026-04-26T12:40:51.919Z</time></trkpt><trkpt lat="40.17545037900896" lon="8.796979758370773"><ele>356.0</ele><time>2026-04-26T12:40:52.919Z</time></trkpt><trkpt lat="40.175320895773865" lon="8.797066699064768"><ele>356.0</ele><time>2026-04-26T12:40:53.919Z</time></trkpt><trkpt lat="40.17519522502888" lon="8.797111581192986"><ele>356.0</ele><time>2026-04-26T12:40:54.919Z</time></trkpt><trkpt lat="40.1750589086124" lon="8.797177315602982"><ele>356.0</ele><time>2026-04-26T12:40:55.919Z</time></trkpt><trkpt lat="40.17491058776742" lon="8.797259392818779"><ele>356.0</ele><time>2026-04-26T12:40:56.919Z</time></trkpt><trkpt lat="40.174757449629574" lon="8.79734369001602"><ele>357.33333333333337</ele><time>2026-04-26T12:40:57.919Z</time></trkpt><trkpt lat="40.17460073084054" lon="8.79742812277986"><ele>358.6666666666667</ele><time>2026-04-26T12:40:58.919Z</time></trkpt><trkpt lat="40.17444479925845" lon="8.797504158545214"><ele>360.0</ele><time>2026-04-26T12:40:59.919Z</time></trkpt><trkpt lat="40.17428451411658" lon="8.797583951777332"><ele>360.0</ele><time>2026-04-26T12:41:00.919Z</time></trkpt><trkpt lat="40.17412076423129" lon="8.797658832089255"><ele>360.0</ele><time>2026-04-26T12:41:01.919Z</time></trkpt><trkpt lat="40.17395631365857" lon="8.797734895828468"><ele>360.0</ele><time>2026-04-26T12:41:02.919Z</time></trkpt><trkpt lat="40.173792972075866" lon="8.797822595256553"><ele>359.0</ele><time>2026-04-26T12:41:03.919Z</time></trkpt><trkpt lat="40.17363049202644" lon="8.797907065137998"><ele>358.0</ele><time>2026-04-26T12:41:04.919Z</time></trkpt><trkpt lat="40.17346706151233" lon="8.797989932003873"><ele>357.0</ele><time>2026-04-26T12:41:05.919Z</time></trkpt><trkpt lat="40.17330017564516" lon="8.798102100442927"><ele>357.0</ele><time>2026-04-26T12:41:06.919Z</time></trkpt><trkpt lat="40.173137042873314" lon="8.798201217483227"><ele>357.0</ele><time>2026-04-26T12:41:07.919Z</time></trkpt><trkpt lat="40.17297504427126" lon="8.798289434635944"><ele>357.0</ele><time>2026-04-26T12:41:08.919Z</time></trkpt><trkpt lat="40.1728106134175" lon="8.798372043857333"><ele>357.0</ele><time>2026-04-26T12:41:09.919Z</time></trkpt><trkpt lat="40.17264913138792" lon="8.798456037364502"><ele>357.0</ele><time>2026-04-26T12:41:10.919Z</time></trkpt><trkpt lat="40.172484339499256" lon="8.798546385379483"><ele>357.0</ele><time>2026-04-26T12:41:11.919Z</time></trkpt><trkpt lat="40.17231761882225" lon="8.798639759629697"><ele>355.6666666666667</ele><time>2026-04-26T12:41:12.919Z</time></trkpt><trkpt lat="40.1721499984794" lon="8.79873339879594"><ele>354.33333333333337</ele><time>2026-04-26T12:41:13.919Z</time></trkpt><trkpt lat="40.17197949725739" lon="8.798830054335568"><ele>353.0</ele><time>2026-04-26T12:41:14.919Z</time></trkpt><trkpt lat="40.171814213544955" lon="8.79891797349"><ele>353.0</ele><time>2026-04-26T12:41:15.919Z</time></trkpt><trkpt lat="40.17165490817863" lon="8.799007623572445"><ele>353.0</ele><time>2026-04-26T12:41:16.919Z</time></trkpt><trkpt lat="40.17149264409803" lon="8.79910009077513"><ele>353.0</ele><time>2026-04-26T12:41:17.919Z</time></trkpt><trkpt lat="40.17133622715805" lon="8.799191613756088"><ele>352.33333333333337</ele><time>2026-04-26T12:41:18.919Z</time></trkpt><trkpt lat="40.17117989923637" lon="8.799279128532095"><ele>351.6666666666667</ele><time>2026-04-26T12:41:19.919Z</time></trkpt><trkpt lat="40.171020717320715" lon="8.799359910623174"><ele>351.0</ele><time>2026-04-26T12:41:20.919Z</time></trkpt><trkpt lat="40.17086031334503" lon="8.79944279339233"><ele>350.0</ele><time>2026-04-26T12:41:21.919Z</time></trkpt><trkpt lat="40.17069889358948" lon="8.799525077391097"><ele>349.0</ele><time>2026-04-26T12:41:22.919Z</time></trkpt><trkpt lat="40.17053734175372" lon="8.799613769152417"><ele>348.0</ele><time>2026-04-26T12:41:23.919Z</time></trkpt><trkpt lat="40.17037690374804" lon="8.799702993150511"><ele>348.0</ele><time>2026-04-26T12:41:24.919Z</time></trkpt><trkpt lat="40.170213314600566" lon="8.79979249715136"><ele>348.0</ele><time>2026-04-26T12:41:25.919Z</time></trkpt><trkpt lat="40.170050155900725" lon="8.79988159789127"><ele>348.0</ele><time>2026-04-26T12:41:26.919Z</time></trkpt><trkpt lat="40.16988730102528" lon="8.799970332507952"><ele>347.6666666666667</ele><time>2026-04-26T12:41:27.919Z</time></trkpt><trkpt lat="40.1697234482604" lon="8.800056284746612"><ele>347.33333333333337</ele><time>2026-04-26T12:41:28.919Z</time></trkpt><trkpt lat="40.16955940807859" lon="8.800142734295427"><ele>347.0</ele><time>2026-04-26T12:41:29.919Z</time></trkpt><trkpt lat="40.169397445664664" lon="8.800231686154154"><ele>347.0</ele><time>2026-04-26T12:41:30.919Z</time></trkpt><trkpt lat="40.169238930399985" lon="8.800319319386787"><ele>347.0</ele><time>2026-04-26T12:41:31.919Z</time></trkpt><trkpt lat="40.169080679975096" lon="8.800408170822205"><ele>347.0</ele><time>2026-04-26T12:41:32.919Z</time></trkpt><trkpt lat="40.16892469419749" lon="8.800493733748162"><ele>347.6666666666667</ele><time>2026-04-26T12:41:33.919Z</time></trkpt><trkpt lat="40.1687701279987" lon="8.80058114063544"><ele>348.3333333333333</ele><time>2026-04-26T12:41:34.919Z</time></trkpt><trkpt lat="40.168616240404404" lon="8.800669881605074"><ele>349.0</ele><time>2026-04-26T12:41:35.919Z</time></trkpt><trkpt lat="40.168461331532974" lon="8.800758754537501"><ele>349.0</ele><time>2026-04-26T12:41:36.919Z</time></trkpt><trkpt lat="40.168307200198534" lon="8.800845617361514"><ele>349.0</ele><time>2026-04-26T12:41:37.919Z</time></trkpt><trkpt lat="40.16815068890152" lon="8.800928850478181"><ele>349.0</ele><time>2026-04-26T12:41:38.919Z</time></trkpt><trkpt lat="40.16799344028929" lon="8.801005576474047"><ele>348.66666666666663</ele><time>2026-04-26T12:41:39.917Z</time></trkpt><trkpt lat="40.16783570580419" lon="8.801079123786408"><ele>348.3333333333333</ele><time>2026-04-26T12:41:40.917Z</time></trkpt><trkpt lat="40.16767895497709" lon="8.80115209959011"><ele>348.0</ele><time>2026-04-26T12:41:41.917Z</time></trkpt><trkpt lat="40.16752496624965" lon="8.801235804546504"><ele>348.0</ele><time>2026-04-26T12:41:42.918Z</time></trkpt><trkpt lat="40.1673685339701" lon="8.801319418048484"><ele>348.0</ele><time>2026-04-26T12:41:43.917Z</time></trkpt><trkpt lat="40.167210237934924" lon="8.801403024229622"><ele>348.0</ele><time>2026-04-26T12:41:44.917Z</time></trkpt><trkpt lat="40.167048364028595" lon="8.801491961529724"><ele>348.3333333333333</ele><time>2026-04-26T12:41:45.918Z</time></trkpt><trkpt lat="40.16688854900666" lon="8.801576730647222"><ele>348.66666666666663</ele><time>2026-04-26T12:41:46.917Z</time></trkpt><trkpt lat="40.16672751715569" lon="8.801661772936457"><ele>349.0</ele><time>2026-04-26T12:41:47.917Z</time></trkpt><trkpt lat="40.1665691611102" lon="8.801741958051412"><ele>348.66666666666663</ele><time>2026-04-26T12:41:48.918Z</time></trkpt><trkpt lat="40.16640850395134" lon="8.801821924801175"><ele>348.3333333333333</ele><time>2026-04-26T12:41:49.917Z</time></trkpt><trkpt lat="40.16624540221309" lon="8.801900365189619"><ele>348.0</ele><time>2026-04-26T12:41:50.917Z</time></trkpt><trkpt lat="40.16607934965204" lon="8.801984690192967"><ele>347.0</ele><time>2026-04-26T12:41:51.917Z</time></trkpt><trkpt lat="40.16591374705037" lon="8.80207124599564"><ele>346.0</ele><time>2026-04-26T12:41:52.918Z</time></trkpt><trkpt lat="40.16574848768734" lon="8.802156584039597"><ele>345.0</ele><time>2026-04-26T12:41:53.918Z</time></trkpt><trkpt lat="40.16558308839797" lon="8.802244009360962"><ele>344.6666666666667</ele><time>2026-04-26T12:41:54.918Z</time></trkpt><trkpt lat="40.16541304743386" lon="8.802331870315541"><ele>344.33333333333337</ele><time>2026-04-26T12:41:55.918Z</time></trkpt><trkpt lat="40.16524479186284" lon="8.802423541174504"><ele>344.0</ele><time>2026-04-26T12:41:56.918Z</time></trkpt><trkpt lat="40.16507571529285" lon="8.802519557409937"><ele>344.0</ele><time>2026-04-26T12:41:57.918Z</time></trkpt><trkpt lat="40.164909377546955" lon="8.802606788598709"><ele>344.0</ele><time>2026-04-26T12:41:58.918Z</time></trkpt><trkpt lat="40.164740107787566" lon="8.802693621167814"><ele>344.0</ele><time>2026-04-26T12:41:59.918Z</time></trkpt><trkpt lat="40.164570830024694" lon="8.802780633567256"><ele>343.6666666666667</ele><time>2026-04-26T12:42:00.918Z</time></trkpt><trkpt lat="40.164404484235085" lon="8.802867528798922"><ele>343.3333333333333</ele><time>2026-04-26T12:42:01.918Z</time></trkpt><trkpt lat="40.16423978290593" lon="8.802951333412134"><ele>343.0</ele><time>2026-04-26T12:42:02.918Z</time></trkpt><trkpt lat="40.164072702986054" lon="8.803036336665697"><ele>342.3333333333333</ele><time>2026-04-26T12:42:03.918Z</time></trkpt><trkpt lat="40.16390796908033" lon="8.803118087018781"><ele>341.6666666666667</ele><time>2026-04-26T12:42:04.918Z</time></trkpt><trkpt lat="40.163742215828584" lon="8.803200158554995"><ele>341.0</ele><time>2026-04-26T12:42:05.918Z</time></trkpt><trkpt lat="40.163576365867215" lon="8.803286170775179"><ele>341.0</ele><time>2026-04-26T12:42:06.918Z</time></trkpt><trkpt lat="40.16340731338447" lon="8.8033740812751"><ele>341.0</ele><time>2026-04-26T12:42:07.918Z</time></trkpt><trkpt lat="40.163240371247184" lon="8.803464644015481"><ele>341.0</ele><time>2026-04-26T12:42:08.918Z</time></trkpt><trkpt lat="40.163068404238324" lon="8.80354594009035"><ele>339.6666666666667</ele><time>2026-04-26T12:42:09.918Z</time></trkpt><trkpt lat="40.16289746425138" lon="8.80363215797802"><ele>338.3333333333333</ele><time>2026-04-26T12:42:10.918Z</time></trkpt><trkpt lat="40.16272643981948" lon="8.80371958241132"><ele>337.0</ele><time>2026-04-26T12:42:11.918Z</time></trkpt><trkpt lat="40.162555355217236" lon="8.803807213820663"><ele>337.0</ele><time>2026-04-26T12:42:12.918Z</time></trkpt><trkpt lat="40.162385605696365" lon="8.803896026350163"><ele>337.0</ele><time>2026-04-26T12:42:13.918Z</time></trkpt><trkpt lat="40.162215378898885" lon="8.803985656404887"><ele>337.0</ele><time>2026-04-26T12:42:14.918Z</time></trkpt><trkpt lat="40.1620468664263" lon="8.804073025311046"><ele>336.3333333333333</ele><time>2026-04-26T12:42:15.918Z</time></trkpt><trkpt lat="40.16187893034259" lon="8.8041613179102"><ele>335.6666666666667</ele><time>2026-04-26T12:42:16.918Z</time></trkpt><trkpt lat="40.161712641124474" lon="8.804247851555168"><ele>335.0</ele><time>2026-04-26T12:42:17.918Z</time></trkpt><trkpt lat="40.16154240992404" lon="8.804332726715096"><ele>334.33333333333337</ele><time>2026-04-26T12:42:18.918Z</time></trkpt><trkpt lat="40.16137368377091" lon="8.804415133295189"><ele>333.6666666666667</ele><time>2026-04-26T12:42:19.918Z</time></trkpt><trkpt lat="40.161201787523765" lon="8.804499724810345"><ele>333.0</ele><time>2026-04-26T12:42:20.918Z</time></trkpt><trkpt lat="40.16103014289413" lon="8.804583719666958"><ele>333.0</ele><time>2026-04-26T12:42:21.918Z</time></trkpt><trkpt lat="40.160856776236045" lon="8.80467265281444"><ele>333.0</ele><time>2026-04-26T12:42:22.918Z</time></trkpt><trkpt lat="40.16068561582568" lon="8.804763498542973"><ele>333.0</ele><time>2026-04-26T12:42:23.918Z</time></trkpt><trkpt lat="40.160511953890456" lon="8.804850038249423"><ele>332.6666666666667</ele><time>2026-04-26T12:42:24.918Z</time></trkpt><trkpt lat="40.16033892641813" lon="8.804941939326069"><ele>332.33333333333337</ele><time>2026-04-26T12:42:25.918Z</time></trkpt><trkpt lat="40.160162176449305" lon="8.8050343717204"><ele>332.0</ele><time>2026-04-26T12:42:26.918Z</time></trkpt><trkpt lat="40.159988010197516" lon="8.805126048601302"><ele>331.0</ele><time>2026-04-26T12:42:27.918Z</time></trkpt><trkpt lat="40.1598151938432" lon="8.80521416732293"><ele>330.0</ele><time>2026-04-26T12:42:28.918Z</time></trkpt><trkpt lat="40.15964110040704" lon="8.805303960650582"><ele>329.0</ele><time>2026-04-26T12:42:29.918Z</time></trkpt><trkpt lat="40.15946685419511" lon="8.805394887626356"><ele>329.0</ele><time>2026-04-26T12:42:30.918Z</time></trkpt><trkpt lat="40.159291832873016" lon="8.805484535093923"><ele>329.0</ele><time>2026-04-26T12:42:31.918Z</time></trkpt><trkpt lat="40.15911856100423" lon="8.80557400203071"><ele>329.0</ele><time>2026-04-26T12:42:32.918Z</time></trkpt><trkpt lat="40.15894390431488" lon="8.805663321744639"><ele>328.6666666666667</ele><time>2026-04-26T12:42:33.918Z</time></trkpt><trkpt lat="40.15877128780723" lon="8.805753935499341"><ele>328.3333333333333</ele><time>2026-04-26T12:42:34.918Z</time></trkpt><trkpt lat="40.15859911684919" lon="8.80584092938552"><ele>328.0</ele><time>2026-04-26T12:42:35.918Z</time></trkpt><trkpt lat="40.15842757258074" lon="8.805924916389182"><ele>327.3333333333333</ele><time>2026-04-26T12:42:36.918Z</time></trkpt><trkpt lat="40.158259793438916" lon="8.806017712492299"><ele>326.6666666666667</ele><time>2026-04-26T12:42:37.918Z</time></trkpt><trkpt lat="40.15808823951833" lon="8.806112684686562"><ele>326.0</ele><time>2026-04-26T12:42:38.918Z</time></trkpt><trkpt lat="40.157919596381944" lon="8.806206340473988"><ele>325.33333333333337</ele><time>2026-04-26T12:42:39.918Z</time></trkpt><trkpt lat="40.15775085202348" lon="8.806299475372384"><ele>324.6666666666667</ele><time>2026-04-26T12:42:40.918Z</time></trkpt><trkpt lat="40.1575824905569" lon="8.806378862104065"><ele>324.0</ele><time>2026-04-26T12:42:41.918Z</time></trkpt><trkpt lat="40.15741467051407" lon="8.806461530624237"><ele>324.3333333333333</ele><time>2026-04-26T12:42:42.918Z</time></trkpt><trkpt lat="40.15724864322917" lon="8.80655007656936"><ele>324.66666666666663</ele><time>2026-04-26T12:42:43.918Z</time></trkpt><trkpt lat="40.157080636401474" lon="8.806634938537016"><ele>325.0</ele><time>2026-04-26T12:42:44.918Z</time></trkpt><trkpt lat="40.156912354367634" lon="8.806716916210476"><ele>325.0</ele><time>2026-04-26T12:42:45.918Z</time></trkpt><trkpt lat="40.156743558576466" lon="8.806804799993708"><ele>325.0</ele><time>2026-04-26T12:42:46.918Z</time></trkpt><trkpt lat="40.156575300694115" lon="8.806888359592092"><ele>325.0</ele><time>2026-04-26T12:42:47.918Z</time></trkpt><trkpt lat="40.15640651448502" lon="8.80697300179792"><ele>325.3333333333333</ele><time>2026-04-26T12:42:48.918Z</time></trkpt><trkpt lat="40.156240038575795" lon="8.807054282445018"><ele>325.6666666666667</ele><time>2026-04-26T12:42:49.918Z</time></trkpt><trkpt lat="40.15607104031992" lon="8.807137632561837"><ele>326.0</ele><time>2026-04-26T12:42:50.918Z</time></trkpt><trkpt lat="40.15590061302237" lon="8.80722239737722"><ele>326.0</ele><time>2026-04-26T12:42:51.918Z</time></trkpt><trkpt lat="40.15573138206967" lon="8.807308339348243"><ele>326.0</ele><time>2026-04-26T12:42:52.918Z</time></trkpt><trkpt lat="40.15555798001972" lon="8.807394419240513"><ele>326.0</ele><time>2026-04-26T12:42:53.918Z</time></trkpt><trkpt lat="40.15538896874768" lon="8.807483648317017"><ele>326.0</ele><time>2026-04-26T12:42:54.918Z</time></trkpt><trkpt lat="40.1552206079801" lon="8.807568159182695"><ele>326.0</ele><time>2026-04-26T12:42:55.918Z</time></trkpt><trkpt lat="40.15505556352866" lon="8.80765331195929"><ele>326.0</ele><time>2026-04-26T12:42:56.918Z</time></trkpt><trkpt lat="40.15489271374291" lon="8.807736474527005"><ele>326.0</ele><time>2026-04-26T12:42:57.919Z</time></trkpt><trkpt lat="40.15473109590576" lon="8.807814925648902"><ele>326.0</ele><time>2026-04-26T12:42:58.919Z</time></trkpt><trkpt lat="40.154568085618266" lon="8.807895091710577"><ele>326.0</ele><time>2026-04-26T12:42:59.919Z</time></trkpt><trkpt lat="40.154402344723806" lon="8.80797713750825"><ele>326.0</ele><time>2026-04-26T12:43:00.919Z</time></trkpt><trkpt lat="40.15423548972402" lon="8.808052695826417"><ele>326.0</ele><time>2026-04-26T12:43:01.919Z</time></trkpt><trkpt lat="40.15406495615741" lon="8.808128330084738"><ele>326.0</ele><time>2026-04-26T12:43:02.919Z</time></trkpt><trkpt lat="40.1538955937758" lon="8.808201367032217"><ele>326.33333333333337</ele><time>2026-04-26T12:43:03.919Z</time></trkpt><trkpt lat="40.153724482937946" lon="8.808272272834913"><ele>326.6666666666667</ele><time>2026-04-26T12:43:04.919Z</time></trkpt><trkpt lat="40.15355427477655" lon="8.808336425489303"><ele>327.0</ele><time>2026-04-26T12:43:05.919Z</time></trkpt><trkpt lat="40.15337895950604" lon="8.80840327354371"><ele>327.0</ele><time>2026-04-26T12:43:06.919Z</time></trkpt><trkpt lat="40.15320370667326" lon="8.808470202598215"><ele>327.0</ele><time>2026-04-26T12:43:07.919Z</time></trkpt><trkpt lat="40.15302911069125" lon="8.808532339613159"><ele>327.0</ele><time>2026-04-26T12:43:08.919Z</time></trkpt><trkpt lat="40.15285334926599" lon="8.80859122393058"><ele>326.6666666666667</ele><time>2026-04-26T12:43:09.919Z</time></trkpt><trkpt lat="40.152679228745285" lon="8.808646163007305"><ele>326.33333333333337</ele><time>2026-04-26T12:43:10.919Z</time></trkpt><trkpt lat="40.152502262703024" lon="8.808709204418903"><ele>326.0</ele><time>2026-04-26T12:43:11.919Z</time></trkpt><trkpt lat="40.15232429938182" lon="8.808766652784355"><ele>326.0</ele><time>2026-04-26T12:43:12.919Z</time></trkpt><trkpt lat="40.152144380318234" lon="8.808829346465659"><ele>326.0</ele><time>2026-04-26T12:43:13.919Z</time></trkpt><trkpt lat="40.15196700476637" lon="8.808890979162468"><ele>326.0</ele><time>2026-04-26T12:43:14.919Z</time></trkpt><trkpt lat="40.15179198692318" lon="8.80893414318715"><ele>326.0</ele><time>2026-04-26T12:43:15.919Z</time></trkpt><trkpt lat="40.151614561926486" lon="8.80896885435257"><ele>326.0</ele><time>2026-04-26T12:43:16.919Z</time></trkpt><trkpt lat="40.151437428029865" lon="8.809000910993921"><ele>326.0</ele><time>2026-04-26T12:43:17.919Z</time></trkpt><trkpt lat="40.151257178687466" lon="8.80903190477085"><ele>325.33333333333337</ele><time>2026-04-26T12:43:18.919Z</time></trkpt><trkpt lat="40.151078274753154" lon="8.809061420773206"><ele>324.6666666666667</ele><time>2026-04-26T12:43:19.919Z</time></trkpt><trkpt lat="40.15089757264833" lon="8.809093124398066"><ele>324.0</ele><time>2026-04-26T12:43:20.919Z</time></trkpt><trkpt lat="40.15072021673962" lon="8.80912462391854"><ele>324.0</ele><time>2026-04-26T12:43:21.919Z</time></trkpt><trkpt lat="40.15054405093532" lon="8.809152871311834"><ele>324.0</ele><time>2026-04-26T12:43:22.919Z</time></trkpt><trkpt lat="40.150365624111195" lon="8.80918358073845"><ele>324.0</ele><time>2026-04-26T12:43:23.919Z</time></trkpt><trkpt lat="40.15018971691065" lon="8.809214987816247"><ele>324.0</ele><time>2026-04-26T12:43:24.919Z</time></trkpt><trkpt lat="40.15001479580001" lon="8.809244835362284"><ele>324.0</ele><time>2026-04-26T12:43:25.919Z</time></trkpt><trkpt lat="40.14983936041544" lon="8.80927578312192"><ele>324.0</ele><time>2026-04-26T12:43:26.919Z</time></trkpt><trkpt lat="40.149665270568754" lon="8.809302942498343"><ele>323.6666666666667</ele><time>2026-04-26T12:43:27.919Z</time></trkpt><trkpt lat="40.149488935386366" lon="8.80933106647844"><ele>323.33333333333337</ele><time>2026-04-26T12:43:28.919Z</time></trkpt><trkpt lat="40.14931348648725" lon="8.809360237649727"><ele>323.0</ele><time>2026-04-26T12:43:29.919Z</time></trkpt><trkpt lat="40.149135168382216" lon="8.809389422371497"><ele>323.6666666666667</ele><time>2026-04-26T12:43:30.919Z</time></trkpt><trkpt lat="40.14895883991792" lon="8.809423416412994"><ele>324.3333333333333</ele><time>2026-04-26T12:43:31.919Z</time></trkpt><trkpt lat="40.148781650062354" lon="8.80945879522883"><ele>325.0</ele><time>2026-04-26T12:43:32.919Z</time></trkpt><trkpt lat="40.148605507396816" lon="8.809493430524427"><ele>325.0</ele><time>2026-04-26T12:43:33.919Z</time></trkpt><trkpt lat="40.14843086343383" lon="8.80952620358077"><ele>325.0</ele><time>2026-04-26T12:43:34.919Z</time></trkpt><trkpt lat="40.14825798144557" lon="8.80955934255353"><ele>325.0</ele><time>2026-04-26T12:43:35.919Z</time></trkpt><trkpt lat="40.14808531283414" lon="8.80959026627281"><ele>325.0</ele><time>2026-04-26T12:43:36.919Z</time></trkpt><trkpt lat="40.147909427062324" lon="8.809621057293864"><ele>325.0</ele><time>2026-04-26T12:43:37.919Z</time></trkpt><trkpt lat="40.147736475573524" lon="8.80965261524223"><ele>325.0</ele><time>2026-04-26T12:43:38.919Z</time></trkpt><trkpt lat="40.14756656346893" lon="8.809682674925881"><ele>325.0</ele><time>2026-04-26T12:43:39.919Z</time></trkpt><trkpt lat="40.14739764761575" lon="8.809711281612175"><ele>325.0</ele><time>2026-04-26T12:43:40.919Z</time></trkpt><trkpt lat="40.147229369089224" lon="8.80974298233026"><ele>325.0</ele><time>2026-04-26T12:43:41.919Z</time></trkpt><trkpt lat="40.14706041178747" lon="8.809777716901339"><ele>325.0</ele><time>2026-04-26T12:43:42.919Z</time></trkpt><trkpt lat="40.14688989229634" lon="8.8098051994739"><ele>325.0</ele><time>2026-04-26T12:43:43.919Z</time></trkpt><trkpt lat="40.14671978636392" lon="8.809834738513976"><ele>325.0</ele><time>2026-04-26T12:43:44.919Z</time></trkpt><trkpt lat="40.146552262587456" lon="8.80986503684199"><ele>325.3333333333333</ele><time>2026-04-26T12:43:45.917Z</time></trkpt><trkpt lat="40.146386628529434" lon="8.809891448252039"><ele>325.6666666666667</ele><time>2026-04-26T12:43:46.918Z</time></trkpt><trkpt lat="40.14622267011571" lon="8.809914076603565"><ele>326.0</ele><time>2026-04-26T12:43:47.918Z</time></trkpt><trkpt lat="40.146054691623206" lon="8.809945265681195"><ele>326.0</ele><time>2026-04-26T12:43:48.917Z</time></trkpt><trkpt lat="40.14588605945445" lon="8.809978348950589"><ele>326.0</ele><time>2026-04-26T12:43:49.917Z</time></trkpt><trkpt lat="40.14571532039303" lon="8.810016009960545"><ele>326.0</ele><time>2026-04-26T12:43:50.917Z</time></trkpt><trkpt lat="40.145544474888226" lon="8.810052637351323"><ele>326.33333333333337</ele><time>2026-04-26T12:43:51.917Z</time></trkpt><trkpt lat="40.14537484158985" lon="8.810088470142373"><ele>326.6666666666667</ele><time>2026-04-26T12:43:52.917Z</time></trkpt><trkpt lat="40.14520126363512" lon="8.810122889537743"><ele>327.0</ele><time>2026-04-26T12:43:53.917Z</time></trkpt><trkpt lat="40.14503201985708" lon="8.810154951054761"><ele>327.0</ele><time>2026-04-26T12:43:54.917Z</time></trkpt><trkpt lat="40.14486367074264" lon="8.810190145590798"><ele>327.0</ele><time>2026-04-26T12:43:55.918Z</time></trkpt><trkpt lat="40.14469343689527" lon="8.810226788874008"><ele>327.0</ele><time>2026-04-26T12:43:56.918Z</time></trkpt><trkpt lat="40.1445205656644" lon="8.810266199186035"><ele>327.0</ele><time>2026-04-26T12:43:57.918Z</time></trkpt><trkpt lat="40.14434907531626" lon="8.810307158787953"><ele>327.0</ele><time>2026-04-26T12:43:58.918Z</time></trkpt><trkpt lat="40.1441783613291" lon="8.810350194813058"><ele>327.0</ele><time>2026-04-26T12:43:59.918Z</time></trkpt><trkpt lat="40.14400736169751" lon="8.810393442833076"><ele>327.3333333333333</ele><time>2026-04-26T12:44:00.918Z</time></trkpt><trkpt lat="40.143833280264595" lon="8.810436516135411"><ele>327.66666666666663</ele><time>2026-04-26T12:44:01.918Z</time></trkpt><trkpt lat="40.14366077891753" lon="8.810477992757512"><ele>328.0</ele><time>2026-04-26T12:44:02.918Z</time></trkpt><trkpt lat="40.143488401840564" lon="8.810522477146531"><ele>328.0</ele><time>2026-04-26T12:44:03.918Z</time></trkpt><trkpt lat="40.14331451724528" lon="8.810567640420324"><ele>328.0</ele><time>2026-04-26T12:44:04.918Z</time></trkpt><trkpt lat="40.14313731140709" lon="8.810613560353168"><ele>328.0</ele><time>2026-04-26T12:44:05.918Z</time></trkpt><trkpt lat="40.14295886561539" lon="8.810659882238777"><ele>327.3333333333333</ele><time>2026-04-26T12:44:06.918Z</time></trkpt><trkpt lat="40.142785654031556" lon="8.8107056587925"><ele>326.6666666666667</ele><time>2026-04-26T12:44:07.918Z</time></trkpt><trkpt lat="40.14261508533129" lon="8.81075070197354"><ele>326.0</ele><time>2026-04-26T12:44:08.918Z</time></trkpt><trkpt lat="40.142439927517685" lon="8.810796866339622"><ele>326.33333333333337</ele><time>2026-04-26T12:44:09.918Z</time></trkpt><trkpt lat="40.14226456492685" lon="8.810841317385533"><ele>326.6666666666667</ele><time>2026-04-26T12:44:10.918Z</time></trkpt><trkpt lat="40.142089009705835" lon="8.810883376667283"><ele>327.0</ele><time>2026-04-26T12:44:11.918Z</time></trkpt><trkpt lat="40.14191273338961" lon="8.81092703561"><ele>327.0</ele><time>2026-04-26T12:44:12.918Z</time></trkpt><trkpt lat="40.14173921978505" lon="8.81096931737881"><ele>327.0</ele><time>2026-04-26T12:44:13.918Z</time></trkpt><trkpt lat="40.14156423641356" lon="8.811013390405876"><ele>327.0</ele><time>2026-04-26T12:44:14.918Z</time></trkpt><trkpt lat="40.14138704673823" lon="8.8110559036229"><ele>326.0</ele><time>2026-04-26T12:44:15.918Z</time></trkpt><trkpt lat="40.141207629255405" lon="8.811100771120687"><ele>325.0</ele><time>2026-04-26T12:44:16.918Z</time></trkpt><trkpt lat="40.1410309508505" lon="8.811144347022656"><ele>324.0</ele><time>2026-04-26T12:44:17.918Z</time></trkpt><trkpt lat="40.14085526967219" lon="8.811184693470436"><ele>323.6666666666667</ele><time>2026-04-26T12:44:18.918Z</time></trkpt><trkpt lat="40.140677745765394" lon="8.811221077482987"><ele>323.33333333333337</ele><time>2026-04-26T12:44:19.918Z</time></trkpt><trkpt lat="40.14050306699012" lon="8.811249228508311"><ele>323.0</ele><time>2026-04-26T12:44:20.918Z</time></trkpt><trkpt lat="40.140324529830025" lon="8.811274884558962"><ele>323.0</ele><time>2026-04-26T12:44:21.918Z</time></trkpt><trkpt lat="40.14014443146612" lon="8.811296341896682"><ele>323.0</ele><time>2026-04-26T12:44:22.918Z</time></trkpt><trkpt lat="40.13996064039758" lon="8.811310893298726"><ele>323.0</ele><time>2026-04-26T12:44:23.918Z</time></trkpt><trkpt lat="40.13977707317095" lon="8.8113202024121"><ele>323.33333333333337</ele><time>2026-04-26T12:44:24.918Z</time></trkpt><trkpt lat="40.13959376518464" lon="8.811321632825045"><ele>323.6666666666667</ele><time>2026-04-26T12:44:25.918Z</time></trkpt><trkpt lat="40.1394120085565" lon="8.811317104319462"><ele>324.0</ele><time>2026-04-26T12:44:26.918Z</time></trkpt><trkpt lat="40.13922700682646" lon="8.81130987350619"><ele>323.6666666666667</ele><time>2026-04-26T12:44:27.918Z</time></trkpt><trkpt lat="40.139047407228645" lon="8.811293984181848"><ele>323.33333333333337</ele><time>2026-04-26T12:44:28.918Z</time></trkpt><trkpt lat="40.13886695205828" lon="8.811270227066814"><ele>323.0</ele><time>2026-04-26T12:44:29.918Z</time></trkpt><trkpt lat="40.13868983614368" lon="8.811237879989001"><ele>323.0</ele><time>2026-04-26T12:44:30.918Z</time></trkpt><trkpt lat="40.138513578509865" lon="8.811202789007138"><ele>323.0</ele><time>2026-04-26T12:44:31.918Z</time></trkpt><trkpt lat="40.138336556613815" lon="8.811161161632757"><ele>323.0</ele><time>2026-04-26T12:44:32.918Z</time></trkpt><trkpt lat="40.13816093909698" lon="8.811115032078428"><ele>322.6666666666667</ele><time>2026-04-26T12:44:33.918Z</time></trkpt><trkpt lat="40.13798864786991" lon="8.811057423942472"><ele>322.3333333333333</ele><time>2026-04-26T12:44:34.918Z</time></trkpt><trkpt lat="40.13781826692326" lon="8.81099408705848"><ele>322.0</ele><time>2026-04-26T12:44:35.918Z</time></trkpt><trkpt lat="40.137645296668225" lon="8.81092981888536"><ele>322.0</ele><time>2026-04-26T12:44:36.918Z</time></trkpt><trkpt lat="40.13747237320378" lon="8.810858703875676"><ele>322.0</ele><time>2026-04-26T12:44:37.918Z</time></trkpt><trkpt lat="40.13730051304672" lon="8.810783231877682"><ele>322.0</ele><time>2026-04-26T12:44:38.918Z</time></trkpt><trkpt lat="40.13713099347671" lon="8.810701519204079"><ele>321.66666666666663</ele><time>2026-04-26T12:44:39.918Z</time></trkpt><trkpt lat="40.136960810070754" lon="8.810621207382539"><ele>321.3333333333333</ele><time>2026-04-26T12:44:40.918Z</time></trkpt><trkpt lat="40.136792415071966" lon="8.810533231383092"><ele>321.0</ele><time>2026-04-26T12:44:41.918Z</time></trkpt><trkpt lat="40.136625251231685" lon="8.810437786549258"><ele>321.0</ele><time>2026-04-26T12:44:42.918Z</time></trkpt><trkpt lat="40.13646094599159" lon="8.810336933659054"><ele>321.0</ele><time>2026-04-26T12:44:43.918Z</time></trkpt><trkpt lat="40.136305741723696" lon="8.810228320785974"><ele>321.0</ele><time>2026-04-26T12:44:44.918Z</time></trkpt><trkpt lat="40.13615536098075" lon="8.810121050894205"><ele>321.0</ele><time>2026-04-26T12:44:45.918Z</time></trkpt><trkpt lat="40.13600387970575" lon="8.810008058307465"><ele>321.0</ele><time>2026-04-26T12:44:46.918Z</time></trkpt><trkpt lat="40.135859147968205" lon="8.809897157310726"><ele>321.0</ele><time>2026-04-26T12:44:47.918Z</time></trkpt><trkpt lat="40.13571676661695" lon="8.809791418932289"><ele>321.3333333333333</ele><time>2026-04-26T12:44:48.918Z</time></trkpt><trkpt lat="40.13556957643829" lon="8.809682648220745"><ele>321.66666666666663</ele><time>2026-04-26T12:44:49.918Z</time></trkpt><trkpt lat="40.13542389996053" lon="8.80957930484309"><ele>322.0</ele><time>2026-04-26T12:44:50.918Z</time></trkpt><trkpt lat="40.13527527873329" lon="8.809472268693963"><ele>322.0</ele><time>2026-04-26T12:44:51.918Z</time></trkpt><trkpt lat="40.135128884712856" lon="8.80936335692578"><ele>322.0</ele><time>2026-04-26T12:44:52.918Z</time></trkpt><trkpt lat="40.134985089447724" lon="8.809250138836147"><ele>322.0</ele><time>2026-04-26T12:44:53.918Z</time></trkpt><trkpt lat="40.13484930318647" lon="8.809131821351436"><ele>321.5</ele><time>2026-04-26T12:44:54.918Z</time></trkpt><trkpt lat="40.134731047231696" lon="8.809017810424868"><ele>321.0</ele><time>2026-04-26T12:44:55.918Z</time></trkpt><trkpt lat="40.13462123844353" lon="8.808920536313442"><ele>320.5</ele><time>2026-04-26T12:44:56.918Z</time></trkpt><trkpt lat="40.13452040082381" lon="8.808834187026221"><ele>320.0</ele><time>2026-04-26T12:44:57.918Z</time></trkpt><trkpt lat="40.13443621690996" lon="8.808761403548633"><ele>320.0</ele><time>2026-04-26T12:44:58.918Z</time></trkpt><trkpt lat="40.134358127690874" lon="8.80870030866339"><ele>320.0</ele><time>2026-04-26T12:44:59.918Z</time></trkpt><trkpt lat="40.13428989645194" lon="8.808649102969447"><ele>320.0</ele><time>2026-04-26T12:45:00.918Z</time></trkpt><trkpt lat="40.13423091385983" lon="8.808604866698621"><ele>320.0</ele><time>2026-04-26T12:45:01.918Z</time></trkpt><trkpt lat="40.13413429088202" lon="8.808528810376579"><ele>320.0</ele><time>2026-04-26T12:45:03.918Z</time></trkpt><trkpt lat="40.13406713822854" lon="8.808474882066118"><ele>320.0</ele><time>2026-04-26T12:45:05.918Z</time></trkpt><trkpt lat="40.133989764050995" lon="8.808443419452933"><ele>320.6666666666667</ele><time>2026-04-26T12:45:35.919Z</time></trkpt><trkpt lat="40.13389344162894" lon="8.80836624681075"><ele>321.33333333333337</ele><time>2026-04-26T12:45:37.919Z</time></trkpt><trkpt lat="40.133836731637416" lon="8.808321860882803"><ele>322.0</ele><time>2026-04-26T12:45:38.919Z</time></trkpt><trkpt lat="40.133771327009455" lon="8.808264996944219"><ele>322.6666666666667</ele><time>2026-04-26T12:45:39.919Z</time></trkpt><trkpt lat="40.13369696058219" lon="8.808198242364156"><ele>323.3333333333333</ele><time>2026-04-26T12:45:40.919Z</time></trkpt><trkpt lat="40.133625671724275" lon="8.80812569043353"><ele>324.0</ele><time>2026-04-26T12:45:41.919Z</time></trkpt><trkpt lat="40.13355447137161" lon="8.808043246023823"><ele>324.0</ele><time>2026-04-26T12:45:42.919Z</time></trkpt><trkpt lat="40.1334724595623" lon="8.807952974314041"><ele>324.0</ele><time>2026-04-26T12:45:43.919Z</time></trkpt><trkpt lat="40.133386728028825" lon="8.807841843390174"><ele>324.0</ele><time>2026-04-26T12:45:44.919Z</time></trkpt><trkpt lat="40.133301062351165" lon="8.807729527979404"><ele>324.0</ele><time>2026-04-26T12:45:45.919Z</time></trkpt><trkpt lat="40.133214054348315" lon="8.807619645970641"><ele>324.0</ele><time>2026-04-26T12:45:46.919Z</time></trkpt><trkpt lat="40.13312618723207" lon="8.807504555250384"><ele>324.0</ele><time>2026-04-26T12:45:47.919Z</time></trkpt><trkpt lat="40.13303599041254" lon="8.80738377674918"><ele>324.0</ele><time>2026-04-26T12:45:48.919Z</time></trkpt><trkpt lat="40.13294072939432" lon="8.80726080475634"><ele>324.0</ele><time>2026-04-26T12:45:49.919Z</time></trkpt><trkpt lat="40.13284377618388" lon="8.807136408909885"><ele>324.0</ele><time>2026-04-26T12:45:50.919Z</time></trkpt><trkpt lat="40.13274580687225" lon="8.807009536292139"><ele>324.0</ele><time>2026-04-26T12:45:51.917Z</time></trkpt><trkpt lat="40.132648169807055" lon="8.806882514249258"><ele>324.0</ele><time>2026-04-26T12:45:52.917Z</time></trkpt><trkpt lat="40.13255955581543" lon="8.806766298387904"><ele>324.0</ele><time>2026-04-26T12:45:53.917Z</time></trkpt><trkpt lat="40.13246990386046" lon="8.80664958524266"><ele>324.0</ele><time>2026-04-26T12:45:54.917Z</time></trkpt><trkpt lat="40.13238241415782" lon="8.806531910325006"><ele>324.0</ele><time>2026-04-26T12:45:55.918Z</time></trkpt><trkpt lat="40.132295625489796" lon="8.806413866397008"><ele>324.0</ele><time>2026-04-26T12:45:56.918Z</time></trkpt><trkpt lat="40.13221364662809" lon="8.806307643055492"><ele>324.0</ele><time>2026-04-26T12:45:57.917Z</time></trkpt><trkpt lat="40.132142541106084" lon="8.80621614296395"><ele>324.0</ele><time>2026-04-26T12:45:58.917Z</time></trkpt><trkpt lat="40.13208849752302" lon="8.80613934790844"><ele>324.0</ele><time>2026-04-26T12:45:59.917Z</time></trkpt><trkpt lat="40.1320448093685" lon="8.806065531329207"><ele>324.0</ele><time>2026-04-26T12:46:00.917Z</time></trkpt><trkpt lat="40.13199756770719" lon="8.805913327487815"><ele>324.0</ele><time>2026-04-26T12:46:02.917Z</time></trkpt><trkpt lat="40.13197111423375" lon="8.80580777476763"><ele>324.0</ele><time>2026-04-26T12:46:03.918Z</time></trkpt><trkpt lat="40.13196906535766" lon="8.805679703933766"><ele>324.0</ele><time>2026-04-26T12:46:04.917Z</time></trkpt><trkpt lat="40.13202880127359" lon="8.805523164065148"><ele>324.0</ele><time>2026-04-26T12:46:05.917Z</time></trkpt><trkpt lat="40.132081962539935" lon="8.8054059183654"><ele>324.0</ele><time>2026-04-26T12:46:06.917Z</time></trkpt><trkpt lat="40.13213730567489" lon="8.805283856559502"><ele>324.0</ele><time>2026-04-26T12:46:07.917Z</time></trkpt><trkpt lat="40.13220082349984" lon="8.805143767858018"><ele>324.0</ele><time>2026-04-26T12:46:08.917Z</time></trkpt><trkpt lat="40.132257846353326" lon="8.804995763558296"><ele>324.0</ele><time>2026-04-26T12:46:09.917Z</time></trkpt><trkpt lat="40.132303045825886" lon="8.804849941854087"><ele>324.0</ele><time>2026-04-26T12:46:10.917Z</time></trkpt><trkpt lat="40.13234118239873" lon="8.80469188983932"><ele>324.0</ele><time>2026-04-26T12:46:11.917Z</time></trkpt><trkpt lat="40.132377770790946" lon="8.804527428605017"><ele>324.0</ele><time>2026-04-26T12:46:12.917Z</time></trkpt><trkpt lat="40.132411022887545" lon="8.804361218483912"><ele>324.0</ele><time>2026-04-26T12:46:13.917Z</time></trkpt><trkpt lat="40.132447003668034" lon="8.804189702543047"><ele>324.0</ele><time>2026-04-26T12:46:14.917Z</time></trkpt><trkpt lat="40.1324828384464" lon="8.804010709227274"><ele>324.0</ele><time>2026-04-26T12:46:15.917Z</time></trkpt><trkpt lat="40.13251891166282" lon="8.803828659380379"><ele>324.5</ele><time>2026-04-26T12:46:16.917Z</time></trkpt><trkpt lat="40.132554436640184" lon="8.803651411673568"><ele>325.0</ele><time>2026-04-26T12:46:17.917Z</time></trkpt><trkpt lat="40.13258864642864" lon="8.803472312468509"><ele>325.5</ele><time>2026-04-26T12:46:18.917Z</time></trkpt><trkpt lat="40.13262291708942" lon="8.803292499894141"><ele>326.0</ele><time>2026-04-26T12:46:19.918Z</time></trkpt><trkpt lat="40.13265755432372" lon="8.803121587333106"><ele>326.25</ele><time>2026-04-26T12:46:20.918Z</time></trkpt><trkpt lat="40.13269445252613" lon="8.80294324075378"><ele>326.5</ele><time>2026-04-26T12:46:21.918Z</time></trkpt><trkpt lat="40.13272732997437" lon="8.802765074857948"><ele>326.75</ele><time>2026-04-26T12:46:22.918Z</time></trkpt><trkpt lat="40.13276556889699" lon="8.802590562514828"><ele>327.0</ele><time>2026-04-26T12:46:23.918Z</time></trkpt><trkpt lat="40.13280499669637" lon="8.80241792949183"><ele>327.0</ele><time>2026-04-26T12:46:24.918Z</time></trkpt><trkpt lat="40.13284327133517" lon="8.80224285516768"><ele>327.0</ele><time>2026-04-26T12:46:25.918Z</time></trkpt><trkpt lat="40.132881142076194" lon="8.80207153234328"><ele>327.0</ele><time>2026-04-26T12:46:26.918Z</time></trkpt><trkpt lat="40.13291947592328" lon="8.801896976342366"><ele>327.0</ele><time>2026-04-26T12:46:27.918Z</time></trkpt><trkpt lat="40.13295732837069" lon="8.801721281734107"><ele>327.0</ele><time>2026-04-26T12:46:28.918Z</time></trkpt><trkpt lat="40.13299622029497" lon="8.80154239212601"><ele>327.0</ele><time>2026-04-26T12:46:29.918Z</time></trkpt><trkpt lat="40.13303374933502" lon="8.80136138777499"><ele>327.0</ele><time>2026-04-26T12:46:30.918Z</time></trkpt><trkpt lat="40.13307203878657" lon="8.801187069578795"><ele>327.0</ele><time>2026-04-26T12:46:31.918Z</time></trkpt><trkpt lat="40.133110128828804" lon="8.801006246117332"><ele>327.0</ele><time>2026-04-26T12:46:32.918Z</time></trkpt><trkpt lat="40.13314859929328" lon="8.800825085226819"><ele>327.0</ele><time>2026-04-26T12:46:33.918Z</time></trkpt><trkpt lat="40.133186906054966" lon="8.800641686703967"><ele>327.0</ele><time>2026-04-26T12:46:34.918Z</time></trkpt><trkpt lat="40.13322437664613" lon="8.800459037139207"><ele>327.0</ele><time>2026-04-26T12:46:35.918Z</time></trkpt><trkpt lat="40.13326154056918" lon="8.800275824247363"><ele>327.5</ele><time>2026-04-26T12:46:36.918Z</time></trkpt><trkpt lat="40.13329992734404" lon="8.800096884085116"><ele>328.0</ele><time>2026-04-26T12:46:37.918Z</time></trkpt><trkpt lat="40.1333366004098" lon="8.799913481256018"><ele>328.5</ele><time>2026-04-26T12:46:38.918Z</time></trkpt><trkpt lat="40.13337756895149" lon="8.799731022149954"><ele>329.0</ele><time>2026-04-26T12:46:39.918Z</time></trkpt><trkpt lat="40.133418292439394" lon="8.79954765750207"><ele>329.0</ele><time>2026-04-26T12:46:40.918Z</time></trkpt><trkpt lat="40.13346083458677" lon="8.799364115933212"><ele>329.0</ele><time>2026-04-26T12:46:41.918Z</time></trkpt><trkpt lat="40.13350193375077" lon="8.799175548652347"><ele>329.0</ele><time>2026-04-26T12:46:42.918Z</time></trkpt><trkpt lat="40.13354111528825" lon="8.798981296868417"><ele>329.0</ele><time>2026-04-26T12:46:43.918Z</time></trkpt><trkpt lat="40.1335795054175" lon="8.79878540385164"><ele>329.0</ele><time>2026-04-26T12:46:44.918Z</time></trkpt><trkpt lat="40.133619397587466" lon="8.798586628979551"><ele>329.0</ele><time>2026-04-26T12:46:45.918Z</time></trkpt><trkpt lat="40.13366190795968" lon="8.798397041179145"><ele>329.0</ele><time>2026-04-26T12:46:46.918Z</time></trkpt><trkpt lat="40.13370419385752" lon="8.79820649820751"><ele>329.0</ele><time>2026-04-26T12:46:47.918Z</time></trkpt><trkpt lat="40.133744381435555" lon="8.798008681150934"><ele>329.0</ele><time>2026-04-26T12:46:48.918Z</time></trkpt><trkpt lat="40.13380319193421" lon="8.797827058384666"><ele>328.75</ele><time>2026-04-26T12:46:49.918Z</time></trkpt><trkpt lat="40.13384079797747" lon="8.797640464123834"><ele>328.5</ele><time>2026-04-26T12:46:50.918Z</time></trkpt><trkpt lat="40.13388137511491" lon="8.79745786070889"><ele>328.25</ele><time>2026-04-26T12:46:51.918Z</time></trkpt><trkpt lat="40.13392132746986" lon="8.7972715225592"><ele>328.0</ele><time>2026-04-26T12:46:52.918Z</time></trkpt><trkpt lat="40.13396208853014" lon="8.797091074697509"><ele>328.0</ele><time>2026-04-26T12:46:53.918Z</time></trkpt><trkpt lat="40.13400023190446" lon="8.796902379703619"><ele>328.0</ele><time>2026-04-26T12:46:54.918Z</time></trkpt><trkpt lat="40.13404067436174" lon="8.79671563473509"><ele>328.0</ele><time>2026-04-26T12:46:55.918Z</time></trkpt><trkpt lat="40.13408306614218" lon="8.796532789601285"><ele>328.0</ele><time>2026-04-26T12:46:56.918Z</time></trkpt><trkpt lat="40.13412256071484" lon="8.79634635579322"><ele>328.0</ele><time>2026-04-26T12:46:57.918Z</time></trkpt><trkpt lat="40.134163594617775" lon="8.796162060945656"><ele>328.0</ele><time>2026-04-26T12:46:58.918Z</time></trkpt><trkpt lat="40.13420027509654" lon="8.795972546374621"><ele>328.0</ele><time>2026-04-26T12:46:59.918Z</time></trkpt><trkpt lat="40.13424117842511" lon="8.795786199658863"><ele>328.0</ele><time>2026-04-26T12:47:00.918Z</time></trkpt><trkpt lat="40.134280957175896" lon="8.795596247998962"><ele>327.75</ele><time>2026-04-26T12:47:01.918Z</time></trkpt><trkpt lat="40.13432073565338" lon="8.795405239394558"><ele>327.5</ele><time>2026-04-26T12:47:02.918Z</time></trkpt><trkpt lat="40.13436057226201" lon="8.795217477020486"><ele>327.25</ele><time>2026-04-26T12:47:03.918Z</time></trkpt><trkpt lat="40.134401722587185" lon="8.795032363766795"><ele>327.0</ele><time>2026-04-26T12:47:04.918Z</time></trkpt><trkpt lat="40.134442243146914" lon="8.794848995356938"><ele>327.0</ele><time>2026-04-26T12:47:05.918Z</time></trkpt><trkpt lat="40.13448195848447" lon="8.79466677421388"><ele>327.0</ele><time>2026-04-26T12:47:06.918Z</time></trkpt><trkpt lat="40.134518988203794" lon="8.794484817681766"><ele>327.0</ele><time>2026-04-26T12:47:07.918Z</time></trkpt><trkpt lat="40.13455353915615" lon="8.794298386208789"><ele>327.0</ele><time>2026-04-26T12:47:08.918Z</time></trkpt><trkpt lat="40.13459060500903" lon="8.794110197113518"><ele>327.25</ele><time>2026-04-26T12:47:09.918Z</time></trkpt><trkpt lat="40.13464375944688" lon="8.793930658838214"><ele>327.5</ele><time>2026-04-26T12:47:10.918Z</time></trkpt><trkpt lat="40.13468257117719" lon="8.793747070389824"><ele>327.75</ele><time>2026-04-26T12:47:11.918Z</time></trkpt><trkpt lat="40.13472176314739" lon="8.7935652205915"><ele>328.0</ele><time>2026-04-26T12:47:12.918Z</time></trkpt><trkpt lat="40.13475856979046" lon="8.793386068385804"><ele>328.0</ele><time>2026-04-26T12:47:13.918Z</time></trkpt><trkpt lat="40.134793643023755" lon="8.793210651489296"><ele>328.0</ele><time>2026-04-26T12:47:14.918Z</time></trkpt><trkpt lat="40.13482918038476" lon="8.793033685614803"><ele>328.0</ele><time>2026-04-26T12:47:15.918Z</time></trkpt><trkpt lat="40.13486422854974" lon="8.792856633868118"><ele>328.0</ele><time>2026-04-26T12:47:16.918Z</time></trkpt><trkpt lat="40.13490009035714" lon="8.792681905984885"><ele>328.0</ele><time>2026-04-26T12:47:17.918Z</time></trkpt><trkpt lat="40.13493613498554" lon="8.79250649444525"><ele>328.0</ele><time>2026-04-26T12:47:18.918Z</time></trkpt><trkpt lat="40.13498666012063" lon="8.792335037574727"><ele>328.0</ele><time>2026-04-26T12:47:19.918Z</time></trkpt><trkpt lat="40.1350192977411" lon="8.792155672474049"><ele>328.0</ele><time>2026-04-26T12:47:20.918Z</time></trkpt><trkpt lat="40.13505562837316" lon="8.791975720318693"><ele>328.25</ele><time>2026-04-26T12:47:21.918Z</time></trkpt><trkpt lat="40.135106098808386" lon="8.791802248138369"><ele>328.5</ele><time>2026-04-26T12:47:22.918Z</time></trkpt><trkpt lat="40.135141264019865" lon="8.791622500382328"><ele>328.75</ele><time>2026-04-26T12:47:23.918Z</time></trkpt><trkpt lat="40.13517749822113" lon="8.791439343737206"><ele>329.0</ele><time>2026-04-26T12:47:24.918Z</time></trkpt><trkpt lat="40.13521740999034" lon="8.791252699514024"><ele>329.0</ele><time>2026-04-26T12:47:25.918Z</time></trkpt><trkpt lat="40.13525971575905" lon="8.791064364672863"><ele>329.0</ele><time>2026-04-26T12:47:26.918Z</time></trkpt><trkpt lat="40.13530389929808" lon="8.790870915492865"><ele>329.0</ele><time>2026-04-26T12:47:27.918Z</time></trkpt><trkpt lat="40.13534879522324" lon="8.790678152966802"><ele>329.33333333333337</ele><time>2026-04-26T12:47:28.918Z</time></trkpt><trkpt lat="40.13539220020382" lon="8.790486603411656"><ele>329.6666666666667</ele><time>2026-04-26T12:47:29.918Z</time></trkpt><trkpt lat="40.13543969707547" lon="8.790290126409317"><ele>330.0</ele><time>2026-04-26T12:47:30.918Z</time></trkpt><trkpt lat="40.13548676597804" lon="8.790096686913333"><ele>330.3333333333333</ele><time>2026-04-26T12:47:31.918Z</time></trkpt><trkpt lat="40.135528889572626" lon="8.78989922529682"><ele>330.66666666666663</ele><time>2026-04-26T12:47:32.918Z</time></trkpt><trkpt lat="40.13556871724368" lon="8.789701650669896"><ele>331.0</ele><time>2026-04-26T12:47:33.918Z</time></trkpt><trkpt lat="40.13560889418574" lon="8.789505131891858"><ele>331.3333333333333</ele><time>2026-04-26T12:47:34.918Z</time></trkpt><trkpt lat="40.135650152123034" lon="8.7893051827515"><ele>331.6666666666667</ele><time>2026-04-26T12:47:35.918Z</time></trkpt><trkpt lat="40.135689850389674" lon="8.789106031000749"><ele>332.0</ele><time>2026-04-26T12:47:36.918Z</time></trkpt><trkpt lat="40.13573255849205" lon="8.788909959899767"><ele>332.33333333333337</ele><time>2026-04-26T12:47:37.918Z</time></trkpt><trkpt lat="40.13577328791277" lon="8.788713030580926"><ele>332.6666666666667</ele><time>2026-04-26T12:47:38.919Z</time></trkpt><trkpt lat="40.13581183526978" lon="8.78851442667719"><ele>333.0</ele><time>2026-04-26T12:47:39.919Z</time></trkpt><trkpt lat="40.13585316977506" lon="8.788316774301851"><ele>333.0</ele><time>2026-04-26T12:47:40.919Z</time></trkpt><trkpt lat="40.13589372618081" lon="8.788117578384075"><ele>333.0</ele><time>2026-04-26T12:47:41.919Z</time></trkpt><trkpt lat="40.13593526110218" lon="8.787917760743252"><ele>333.0</ele><time>2026-04-26T12:47:42.919Z</time></trkpt><trkpt lat="40.13597709141279" lon="8.787715105777771"><ele>333.0</ele><time>2026-04-26T12:47:43.919Z</time></trkpt><trkpt lat="40.13602128914917" lon="8.787514038464655"><ele>333.0</ele><time>2026-04-26T12:47:44.919Z</time></trkpt><trkpt lat="40.13606470298379" lon="8.78731492397225"><ele>333.0</ele><time>2026-04-26T12:47:45.919Z</time></trkpt><trkpt lat="40.13610731498304" lon="8.787116666240657"><ele>333.0</ele><time>2026-04-26T12:47:46.919Z</time></trkpt><trkpt lat="40.13615157820178" lon="8.786918771257655"><ele>333.0</ele><time>2026-04-26T12:47:47.919Z</time></trkpt><trkpt lat="40.1361953942669" lon="8.786720567318003"><ele>333.0</ele><time>2026-04-26T12:47:48.919Z</time></trkpt><trkpt lat="40.13623714496128" lon="8.7865231527969"><ele>333.6666666666667</ele><time>2026-04-26T12:47:49.919Z</time></trkpt><trkpt lat="40.13627861012915" lon="8.786323889758034"><ele>334.33333333333337</ele><time>2026-04-26T12:47:50.919Z</time></trkpt><trkpt lat="40.1363217783015" lon="8.786125439536045"><ele>335.0</ele><time>2026-04-26T12:47:51.919Z</time></trkpt><trkpt lat="40.13636327461865" lon="8.78592422494962"><ele>335.0</ele><time>2026-04-26T12:47:52.919Z</time></trkpt><trkpt lat="40.13640548440294" lon="8.785719478600505"><ele>335.0</ele><time>2026-04-26T12:47:53.919Z</time></trkpt><trkpt lat="40.13645112093215" lon="8.785518415817597"><ele>335.0</ele><time>2026-04-26T12:47:54.919Z</time></trkpt><trkpt lat="40.13649555427521" lon="8.785311047396466"><ele>335.0</ele><time>2026-04-26T12:47:55.919Z</time></trkpt><trkpt lat="40.13654130872732" lon="8.785106936973152"><ele>335.0</ele><time>2026-04-26T12:47:56.919Z</time></trkpt><trkpt lat="40.136586144789796" lon="8.784900556357798"><ele>335.0</ele><time>2026-04-26T12:47:57.917Z</time></trkpt><trkpt lat="40.136630863054066" lon="8.784694353860528"><ele>335.0</ele><time>2026-04-26T12:47:58.917Z</time></trkpt><trkpt lat="40.136674457611115" lon="8.784483932411835"><ele>335.0</ele><time>2026-04-26T12:47:59.917Z</time></trkpt><trkpt lat="40.136721533453546" lon="8.784274994903402"><ele>335.0</ele><time>2026-04-26T12:48:00.917Z</time></trkpt><trkpt lat="40.13676440062573" lon="8.784067226725215"><ele>335.0</ele><time>2026-04-26T12:48:01.917Z</time></trkpt><trkpt lat="40.13680790533535" lon="8.783855329739549"><ele>335.0</ele><time>2026-04-26T12:48:02.917Z</time></trkpt><trkpt lat="40.136854299215194" lon="8.78364724271787"><ele>335.0</ele><time>2026-04-26T12:48:03.917Z</time></trkpt><trkpt lat="40.13690065724313" lon="8.783442990072604"><ele>336.0</ele><time>2026-04-26T12:48:04.917Z</time></trkpt><trkpt lat="40.13694441416789" lon="8.783230530169085"><ele>337.0</ele><time>2026-04-26T12:48:05.917Z</time></trkpt><trkpt lat="40.136989191443384" lon="8.783022449681942"><ele>338.0</ele><time>2026-04-26T12:48:06.917Z</time></trkpt><trkpt lat="40.137032326505796" lon="8.782812710810228"><ele>337.6666666666667</ele><time>2026-04-26T12:48:07.918Z</time></trkpt><trkpt lat="40.13707594002815" lon="8.782608336931004"><ele>337.3333333333333</ele><time>2026-04-26T12:48:08.918Z</time></trkpt><trkpt lat="40.137118786840276" lon="8.782404038821543"><ele>337.0</ele><time>2026-04-26T12:48:09.917Z</time></trkpt><trkpt lat="40.137166919567655" lon="8.782210064556383"><ele>337.0</ele><time>2026-04-26T12:48:10.917Z</time></trkpt><trkpt lat="40.137213828265516" lon="8.782013151298239"><ele>337.0</ele><time>2026-04-26T12:48:11.917Z</time></trkpt><trkpt lat="40.137255449347" lon="8.781807716129276"><ele>337.0</ele><time>2026-04-26T12:48:12.917Z</time></trkpt><trkpt lat="40.13730037084682" lon="8.781598171951105"><ele>337.0</ele><time>2026-04-26T12:48:13.917Z</time></trkpt><trkpt lat="40.13734532238928" lon="8.781381486066712"><ele>337.0</ele><time>2026-04-26T12:48:14.917Z</time></trkpt><trkpt lat="40.137388184809296" lon="8.781165382300296"><ele>337.0</ele><time>2026-04-26T12:48:15.917Z</time></trkpt><trkpt lat="40.137430889579115" lon="8.780940574751744"><ele>338.0</ele><time>2026-04-26T12:48:16.918Z</time></trkpt><trkpt lat="40.13747685312986" lon="8.780718104827145"><ele>339.0</ele><time>2026-04-26T12:48:17.918Z</time></trkpt><trkpt lat="40.13751997777687" lon="8.780491651513902"><ele>340.0</ele><time>2026-04-26T12:48:18.918Z</time></trkpt><trkpt lat="40.13756565990825" lon="8.780267795803969"><ele>339.66666666666663</ele><time>2026-04-26T12:48:19.918Z</time></trkpt><trkpt lat="40.13761078066805" lon="8.780041880344589"><ele>339.3333333333333</ele><time>2026-04-26T12:48:20.918Z</time></trkpt><trkpt lat="40.13766785667011" lon="8.779820637297538"><ele>339.0</ele><time>2026-04-26T12:48:21.918Z</time></trkpt><trkpt lat="40.137714458720296" lon="8.779599141769937"><ele>339.0</ele><time>2026-04-26T12:48:22.918Z</time></trkpt><trkpt lat="40.13776058839818" lon="8.779379891218587"><ele>339.0</ele><time>2026-04-26T12:48:23.918Z</time></trkpt><trkpt lat="40.13780643418103" lon="8.779161987886322"><ele>339.0</ele><time>2026-04-26T12:48:24.918Z</time></trkpt><trkpt lat="40.137853481394416" lon="8.778937187966237"><ele>339.0</ele><time>2026-04-26T12:48:25.918Z</time></trkpt><trkpt lat="40.137898814137905" lon="8.77872079013798"><ele>339.0</ele><time>2026-04-26T12:48:26.918Z</time></trkpt><trkpt lat="40.13794416718829" lon="8.778504294777278"><ele>339.0</ele><time>2026-04-26T12:48:27.918Z</time></trkpt><trkpt lat="40.13799059576235" lon="8.778282665676311"><ele>339.0</ele><time>2026-04-26T12:48:28.918Z</time></trkpt><trkpt lat="40.13803573477632" lon="8.778067148045583"><ele>339.0</ele><time>2026-04-26T12:48:29.918Z</time></trkpt><trkpt lat="40.138080633244634" lon="8.77785217506794"><ele>339.0</ele><time>2026-04-26T12:48:30.918Z</time></trkpt><trkpt lat="40.138124948479984" lon="8.777639994442055"><ele>338.6666666666667</ele><time>2026-04-26T12:48:31.918Z</time></trkpt><trkpt lat="40.13816946912847" lon="8.777426830903794"><ele>338.33333333333337</ele><time>2026-04-26T12:48:32.918Z</time></trkpt><trkpt lat="40.138212141451156" lon="8.777213372971291"><ele>338.0</ele><time>2026-04-26T12:48:33.918Z</time></trkpt><trkpt lat="40.13825115355132" lon="8.776996659338428"><ele>338.0</ele><time>2026-04-26T12:48:34.918Z</time></trkpt><trkpt lat="40.13829292387542" lon="8.776783950888156"><ele>338.0</ele><time>2026-04-26T12:48:35.918Z</time></trkpt><trkpt lat="40.13835036175961" lon="8.776583696951311"><ele>338.0</ele><time>2026-04-26T12:48:36.918Z</time></trkpt><trkpt lat="40.13839432420812" lon="8.776375384080128"><ele>338.0</ele><time>2026-04-26T12:48:37.918Z</time></trkpt><trkpt lat="40.138437198707415" lon="8.776160286680991"><ele>338.0</ele><time>2026-04-26T12:48:38.918Z</time></trkpt><trkpt lat="40.138485611917254" lon="8.775943946656138"><ele>338.0</ele><time>2026-04-26T12:48:39.918Z</time></trkpt><trkpt lat="40.13853025288357" lon="8.775732795749166"><ele>338.33333333333337</ele><time>2026-04-26T12:48:40.918Z</time></trkpt><trkpt lat="40.13857396533289" lon="8.775516630098801"><ele>338.6666666666667</ele><time>2026-04-26T12:48:41.918Z</time></trkpt><trkpt lat="40.138621022965545" lon="8.775304211065974"><ele>339.0</ele><time>2026-04-26T12:48:42.918Z</time></trkpt><trkpt lat="40.13866673021375" lon="8.775090492181251"><ele>338.3333333333333</ele><time>2026-04-26T12:48:43.918Z</time></trkpt><trkpt lat="40.13871342958049" lon="8.774873898915883"><ele>337.66666666666663</ele><time>2026-04-26T12:48:44.918Z</time></trkpt><trkpt lat="40.1387590481622" lon="8.774653292321174"><ele>337.0</ele><time>2026-04-26T12:48:45.918Z</time></trkpt><trkpt lat="40.13880807625545" lon="8.774437369236749"><ele>336.3333333333333</ele><time>2026-04-26T12:48:46.918Z</time></trkpt><trkpt lat="40.13884859516204" lon="8.774213187097985"><ele>335.6666666666667</ele><time>2026-04-26T12:48:47.918Z</time></trkpt><trkpt lat="40.13889822286606" lon="8.773995450315729"><ele>335.0</ele><time>2026-04-26T12:48:48.918Z</time></trkpt><trkpt lat="40.13894429521428" lon="8.773776076146785"><ele>335.0</ele><time>2026-04-26T12:48:49.918Z</time></trkpt><trkpt lat="40.138991014411225" lon="8.773562043569797"><ele>335.0</ele><time>2026-04-26T12:48:50.918Z</time></trkpt><trkpt lat="40.139033477183034" lon="8.773343204101222"><ele>335.0</ele><time>2026-04-26T12:48:51.918Z</time></trkpt><trkpt lat="40.13907621045527" lon="8.773125650239415"><ele>335.33333333333337</ele><time>2026-04-26T12:48:52.918Z</time></trkpt><trkpt lat="40.13911693713326" lon="8.77290482758154"><ele>335.6666666666667</ele><time>2026-04-26T12:48:53.918Z</time></trkpt><trkpt lat="40.13916001573957" lon="8.772685698718151"><ele>336.0</ele><time>2026-04-26T12:48:54.918Z</time></trkpt><trkpt lat="40.139218874211" lon="8.77247043211948"><ele>336.0</ele><time>2026-04-26T12:48:55.918Z</time></trkpt><trkpt lat="40.13924910124921" lon="8.772246309633735"><ele>336.0</ele><time>2026-04-26T12:48:56.918Z</time></trkpt><trkpt lat="40.13930914490401" lon="8.772038749589463"><ele>336.0</ele><time>2026-04-26T12:48:57.918Z</time></trkpt><trkpt lat="40.139353669783056" lon="8.771824823606275"><ele>336.0</ele><time>2026-04-26T12:48:58.918Z</time></trkpt><trkpt lat="40.139397775216736" lon="8.771607120136522"><ele>336.0</ele><time>2026-04-26T12:48:59.918Z</time></trkpt><trkpt lat="40.13944561734848" lon="8.771390967005727"><ele>336.0</ele><time>2026-04-26T12:49:00.918Z</time></trkpt><trkpt lat="40.13949171258871" lon="8.771175820016905"><ele>335.6666666666667</ele><time>2026-04-26T12:49:01.918Z</time></trkpt><trkpt lat="40.13953860136944" lon="8.77096213723794"><ele>335.33333333333337</ele><time>2026-04-26T12:49:02.918Z</time></trkpt><trkpt lat="40.139584340988414" lon="8.7707464174352"><ele>335.0</ele><time>2026-04-26T12:49:03.918Z</time></trkpt><trkpt lat="40.13962809400446" lon="8.770530309832093"><ele>335.0</ele><time>2026-04-26T12:49:04.918Z</time></trkpt><trkpt lat="40.1396731476682" lon="8.77031313213151"><ele>335.0</ele><time>2026-04-26T12:49:05.918Z</time></trkpt><trkpt lat="40.139717386629584" lon="8.770094850818992"><ele>335.0</ele><time>2026-04-26T12:49:06.918Z</time></trkpt><trkpt lat="40.139764049492626" lon="8.76987708860389"><ele>335.0</ele><time>2026-04-26T12:49:07.918Z</time></trkpt><trkpt lat="40.139807627337795" lon="8.769656368111873"><ele>335.0</ele><time>2026-04-26T12:49:08.918Z</time></trkpt><trkpt lat="40.13985120874837" lon="8.769431035115112"><ele>335.0</ele><time>2026-04-26T12:49:09.918Z</time></trkpt><trkpt lat="40.139901796829456" lon="8.769212732914843"><ele>335.0</ele><time>2026-04-26T12:49:10.918Z</time></trkpt><trkpt lat="40.13994983350711" lon="8.768996631919233"><ele>335.0</ele><time>2026-04-26T12:49:11.918Z</time></trkpt><trkpt lat="40.13999543066076" lon="8.768783957675454"><ele>335.0</ele><time>2026-04-26T12:49:12.918Z</time></trkpt><trkpt lat="40.140036234952824" lon="8.768570437267996"><ele>334.6666666666667</ele><time>2026-04-26T12:49:13.918Z</time></trkpt><trkpt lat="40.14007979213511" lon="8.76835769670255"><ele>334.3333333333333</ele><time>2026-04-26T12:49:14.918Z</time></trkpt><trkpt lat="40.1401266566277" lon="8.768151889210632"><ele>334.0</ele><time>2026-04-26T12:49:15.918Z</time></trkpt><trkpt lat="40.14017484332051" lon="8.767954658008083"><ele>334.0</ele><time>2026-04-26T12:49:16.918Z</time></trkpt><trkpt lat="40.14022039076396" lon="8.76777056722734"><ele>334.0</ele><time>2026-04-26T12:49:17.918Z</time></trkpt><trkpt lat="40.140257581027306" lon="8.767587832178576"><ele>334.0</ele><time>2026-04-26T12:49:18.918Z</time></trkpt><trkpt lat="40.14029619389489" lon="8.767404005325306"><ele>334.0</ele><time>2026-04-26T12:49:19.918Z</time></trkpt><trkpt lat="40.14033083707668" lon="8.767223016433391"><ele>334.0</ele><time>2026-04-26T12:49:20.918Z</time></trkpt><trkpt lat="40.14035880825466" lon="8.767041821111103"><ele>334.0</ele><time>2026-04-26T12:49:21.918Z</time></trkpt><trkpt lat="40.140378368778435" lon="8.766857279025642"><ele>334.0</ele><time>2026-04-26T12:49:22.918Z</time></trkpt><trkpt lat="40.14037644735331" lon="8.766667135969941"><ele>334.0</ele><time>2026-04-26T12:49:23.918Z</time></trkpt><trkpt lat="40.14037203277425" lon="8.766478170638305"><ele>334.3333333333333</ele><time>2026-04-26T12:49:24.918Z</time></trkpt><trkpt lat="40.140355645185245" lon="8.766280172166931"><ele>334.6666666666667</ele><time>2026-04-26T12:49:25.918Z</time></trkpt><trkpt lat="40.14033635451858" lon="8.766082363278166"><ele>335.0</ele><time>2026-04-26T12:49:26.918Z</time></trkpt><trkpt lat="40.14032225737769" lon="8.76588846527494"><ele>335.0</ele><time>2026-04-26T12:49:27.918Z</time></trkpt><trkpt lat="40.140306090158205" lon="8.765694853701287"><ele>335.0</ele><time>2026-04-26T12:49:28.918Z</time></trkpt><trkpt lat="40.14029070472181" lon="8.765497057542241"><ele>335.0</ele><time>2026-04-26T12:49:29.918Z</time></trkpt><trkpt lat="40.14027192568513" lon="8.765299022397821"><ele>335.0</ele><time>2026-04-26T12:49:30.918Z</time></trkpt><trkpt lat="40.14025515889034" lon="8.76509932977626"><ele>335.0</ele><time>2026-04-26T12:49:31.918Z</time></trkpt><trkpt lat="40.14023663527312" lon="8.76490077178187"><ele>335.0</ele><time>2026-04-26T12:49:32.918Z</time></trkpt><trkpt lat="40.14021666743077" lon="8.764703742950507"><ele>335.0</ele><time>2026-04-26T12:49:33.918Z</time></trkpt><trkpt lat="40.14019243662055" lon="8.7645032005892"><ele>335.0</ele><time>2026-04-26T12:49:34.918Z</time></trkpt><trkpt lat="40.14016555102816" lon="8.764306211804508"><ele>335.0</ele><time>2026-04-26T12:49:35.918Z</time></trkpt><trkpt lat="40.14013414646237" lon="8.76410749595111"><ele>335.33333333333337</ele><time>2026-04-26T12:49:36.919Z</time></trkpt><trkpt lat="40.14009973099095" lon="8.763915376398932"><ele>335.6666666666667</ele><time>2026-04-26T12:49:37.919Z</time></trkpt><trkpt lat="40.14006150519409" lon="8.763715920944513"><ele>336.0</ele><time>2026-04-26T12:49:38.919Z</time></trkpt><trkpt lat="40.14002205748188" lon="8.76351618042753"><ele>336.0</ele><time>2026-04-26T12:49:39.919Z</time></trkpt><trkpt lat="40.13998224716831" lon="8.76331590607518"><ele>336.0</ele><time>2026-04-26T12:49:40.919Z</time></trkpt><trkpt lat="40.13994746725644" lon="8.763112462061809"><ele>336.0</ele><time>2026-04-26T12:49:41.919Z</time></trkpt><trkpt lat="40.13991593647068" lon="8.762910131744166"><ele>336.0</ele><time>2026-04-26T12:49:42.919Z</time></trkpt><trkpt lat="40.139873641894724" lon="8.762698298244928"><ele>336.0</ele><time>2026-04-26T12:49:43.919Z</time></trkpt><trkpt lat="40.13982263191275" lon="8.762464450841438"><ele>336.0</ele><time>2026-04-26T12:49:44.919Z</time></trkpt><trkpt lat="40.13976317475842" lon="8.762221464530523"><ele>336.3333333333333</ele><time>2026-04-26T12:49:45.919Z</time></trkpt><trkpt lat="40.1397312561849" lon="8.761970960876186"><ele>336.66666666666663</ele><time>2026-04-26T12:49:46.919Z</time></trkpt><trkpt lat="40.13968605744749" lon="8.76173687012708"><ele>337.0</ele><time>2026-04-26T12:49:47.919Z</time></trkpt><trkpt lat="40.139633405332034" lon="8.761464177514222"><ele>337.0</ele><time>2026-04-26T12:49:48.919Z</time></trkpt><trkpt lat="40.1395821580836" lon="8.761198760637548"><ele>337.0</ele><time>2026-04-26T12:49:49.919Z</time></trkpt><trkpt lat="40.13959725767382" lon="8.761284330638032"><ele>337.0</ele><time>2026-04-26T12:49:50.919Z</time></trkpt><trkpt lat="40.139558271434105" lon="8.761073159010774"><ele>337.0</ele><time>2026-04-26T12:49:51.919Z</time></trkpt><trkpt lat="40.13951752896634" lon="8.760856064309833"><ele>337.0</ele><time>2026-04-26T12:49:52.919Z</time></trkpt><trkpt lat="40.139470115569736" lon="8.760637119428926"><ele>337.0</ele><time>2026-04-26T12:49:53.919Z</time></trkpt><trkpt lat="40.139429204742854" lon="8.760420344281783"><ele>337.0</ele><time>2026-04-26T12:49:54.919Z</time></trkpt><trkpt lat="40.13938677207625" lon="8.760204689215726"><ele>337.66666666666663</ele><time>2026-04-26T12:49:55.919Z</time></trkpt><trkpt lat="40.13934658526057" lon="8.75998905028593"><ele>338.3333333333333</ele><time>2026-04-26T12:49:56.919Z</time></trkpt><trkpt lat="40.1393058745306" lon="8.759777957887957"><ele>339.0</ele><time>2026-04-26T12:49:57.919Z</time></trkpt><trkpt lat="40.13926116235789" lon="8.759567411706636"><ele>338.3333333333333</ele><time>2026-04-26T12:49:58.919Z</time></trkpt><trkpt lat="40.13921940105219" lon="8.759356265013324"><ele>337.66666666666663</ele><time>2026-04-26T12:49:59.919Z</time></trkpt><trkpt lat="40.13917647185591" lon="8.759143068688308"><ele>337.0</ele><time>2026-04-26T12:50:00.919Z</time></trkpt><trkpt lat="40.13913341328853" lon="8.758928245204293"><ele>337.0</ele><time>2026-04-26T12:50:01.919Z</time></trkpt><trkpt lat="40.13908890813681" lon="8.75870955583698"><ele>337.0</ele><time>2026-04-26T12:50:02.919Z</time></trkpt><trkpt lat="40.13904573109252" lon="8.758491482585358"><ele>337.0</ele><time>2026-04-26T12:50:03.918Z</time></trkpt><trkpt lat="40.13900243996409" lon="8.758271929118738"><ele>337.3333333333333</ele><time>2026-04-26T12:50:04.917Z</time></trkpt><trkpt lat="40.13895858523271" lon="8.758052735453623"><ele>337.6666666666667</ele><time>2026-04-26T12:50:05.917Z</time></trkpt><trkpt lat="40.13891619772638" lon="8.757834812918889"><ele>338.0</ele><time>2026-04-26T12:50:06.918Z</time></trkpt><trkpt lat="40.13887476758981" lon="8.757620102422354"><ele>338.6666666666667</ele><time>2026-04-26T12:50:07.917Z</time></trkpt><trkpt lat="40.138833705663274" lon="8.757405583028554"><ele>339.3333333333333</ele><time>2026-04-26T12:50:08.917Z</time></trkpt><trkpt lat="40.138791871500835" lon="8.75719294947705"><ele>340.0</ele><time>2026-04-26T12:50:09.917Z</time></trkpt><trkpt lat="40.13875014465527" lon="8.756980032633763"><ele>340.3333333333333</ele><time>2026-04-26T12:50:10.917Z</time></trkpt><trkpt lat="40.138716532397375" lon="8.756768861918955"><ele>340.6666666666667</ele><time>2026-04-26T12:50:11.917Z</time></trkpt><trkpt lat="40.13867312547744" lon="8.756550755820452"><ele>341.0</ele><time>2026-04-26T12:50:12.918Z</time></trkpt><trkpt lat="40.13862993077211" lon="8.756329099163661"><ele>341.0</ele><time>2026-04-26T12:50:13.918Z</time></trkpt><trkpt lat="40.138585733443826" lon="8.756118698488246"><ele>341.0</ele><time>2026-04-26T12:50:14.918Z</time></trkpt><trkpt lat="40.13854291836708" lon="8.755895900167404"><ele>341.0</ele><time>2026-04-26T12:50:15.918Z</time></trkpt><trkpt lat="40.138499052041645" lon="8.755683569685992"><ele>341.6666666666667</ele><time>2026-04-26T12:50:16.917Z</time></trkpt><trkpt lat="40.13845472511281" lon="8.75546661896951"><ele>342.3333333333333</ele><time>2026-04-26T12:50:17.917Z</time></trkpt><trkpt lat="40.13840271001211" lon="8.755243626220025"><ele>343.0</ele><time>2026-04-26T12:50:18.917Z</time></trkpt><trkpt lat="40.138362184608" lon="8.755031082344242"><ele>345.0</ele><time>2026-04-26T12:50:19.917Z</time></trkpt><trkpt lat="40.13832018233765" lon="8.754808880571868"><ele>347.0</ele><time>2026-04-26T12:50:20.917Z</time></trkpt><trkpt lat="40.13827604541286" lon="8.754599486300847"><ele>349.0</ele><time>2026-04-26T12:50:21.917Z</time></trkpt><trkpt lat="40.13823091815441" lon="8.754384602206182"><ele>349.3333333333333</ele><time>2026-04-26T12:50:22.917Z</time></trkpt><trkpt lat="40.13818725983483" lon="8.754163834911472"><ele>349.6666666666667</ele><time>2026-04-26T12:50:23.918Z</time></trkpt><trkpt lat="40.13814301532289" lon="8.753944631043442"><ele>350.0</ele><time>2026-04-26T12:50:24.918Z</time></trkpt><trkpt lat="40.138096878766945" lon="8.753725291436519"><ele>349.33333333333337</ele><time>2026-04-26T12:50:25.918Z</time></trkpt><trkpt lat="40.1380529575549" lon="8.75350096180985"><ele>348.6666666666667</ele><time>2026-04-26T12:50:26.918Z</time></trkpt><trkpt lat="40.13803548684369" lon="8.753273513976067"><ele>348.0</ele><time>2026-04-26T12:50:27.918Z</time></trkpt><trkpt lat="40.1379910598084" lon="8.753057406708004"><ele>348.0</ele><time>2026-04-26T12:50:28.918Z</time></trkpt><trkpt lat="40.13794701529142" lon="8.752835538732505"><ele>348.0</ele><time>2026-04-26T12:50:29.918Z</time></trkpt><trkpt lat="40.13789165405986" lon="8.752608986962269"><ele>348.0</ele><time>2026-04-26T12:50:30.918Z</time></trkpt><trkpt lat="40.1378462301691" lon="8.752367415417222"><ele>347.3333333333333</ele><time>2026-04-26T12:50:31.918Z</time></trkpt><trkpt lat="40.13780791909084" lon="8.752153801102345"><ele>346.66666666666663</ele><time>2026-04-26T12:50:32.918Z</time></trkpt><trkpt lat="40.13776100675997" lon="8.751928037471732"><ele>346.0</ele><time>2026-04-26T12:50:33.918Z</time></trkpt><trkpt lat="40.13771607226028" lon="8.75170386605148"><ele>346.0</ele><time>2026-04-26T12:50:34.918Z</time></trkpt><trkpt lat="40.13767080538419" lon="8.751477656519913"><ele>346.0</ele><time>2026-04-26T12:50:35.918Z</time></trkpt><trkpt lat="40.137629698141005" lon="8.751259258491036"><ele>346.0</ele><time>2026-04-26T12:50:36.918Z</time></trkpt><trkpt lat="40.13758496784847" lon="8.751033218385084"><ele>347.0</ele><time>2026-04-26T12:50:37.918Z</time></trkpt><trkpt lat="40.13754006272533" lon="8.750814013096978"><ele>348.0</ele><time>2026-04-26T12:50:38.918Z</time></trkpt><trkpt lat="40.1374997381709" lon="8.750594190593237"><ele>349.0</ele><time>2026-04-26T12:50:39.918Z</time></trkpt><trkpt lat="40.13746731790453" lon="8.750378758262615"><ele>349.0</ele><time>2026-04-26T12:50:40.918Z</time></trkpt><trkpt lat="40.13742057731753" lon="8.750160408291949"><ele>349.0</ele><time>2026-04-26T12:50:41.918Z</time></trkpt><trkpt lat="40.13737706096885" lon="8.749941701312592"><ele>349.0</ele><time>2026-04-26T12:50:42.918Z</time></trkpt><trkpt lat="40.13733140493905" lon="8.749724515773723"><ele>348.66666666666663</ele><time>2026-04-26T12:50:43.918Z</time></trkpt><trkpt lat="40.13728139489721" lon="8.749494493008855"><ele>348.3333333333333</ele><time>2026-04-26T12:50:44.918Z</time></trkpt><trkpt lat="40.13723491113258" lon="8.749269149516401"><ele>348.0</ele><time>2026-04-26T12:50:45.918Z</time></trkpt><trkpt lat="40.13718805014247" lon="8.74905189985503"><ele>348.0</ele><time>2026-04-26T12:50:46.918Z</time></trkpt><trkpt lat="40.13714228240981" lon="8.748831004541369"><ele>348.0</ele><time>2026-04-26T12:50:47.918Z</time></trkpt><trkpt lat="40.137094344855946" lon="8.748609965754712"><ele>348.0</ele><time>2026-04-26T12:50:48.918Z</time></trkpt><trkpt lat="40.137048117855066" lon="8.748394021677822"><ele>348.6666666666667</ele><time>2026-04-26T12:50:49.918Z</time></trkpt><trkpt lat="40.136998251344075" lon="8.748165083250322"><ele>349.33333333333337</ele><time>2026-04-26T12:50:50.918Z</time></trkpt><trkpt lat="40.13695623154445" lon="8.747940980944314"><ele>350.0</ele><time>2026-04-26T12:50:51.918Z</time></trkpt><trkpt lat="40.136918460796444" lon="8.747718817394164"><ele>350.6666666666667</ele><time>2026-04-26T12:50:52.918Z</time></trkpt><trkpt lat="40.136875898771954" lon="8.747494039824804"><ele>351.3333333333333</ele><time>2026-04-26T12:50:53.918Z</time></trkpt><trkpt lat="40.13682330738579" lon="8.747265040499169"><ele>352.0</ele><time>2026-04-26T12:50:54.918Z</time></trkpt><trkpt lat="40.136773253865336" lon="8.747039655761665"><ele>353.66666666666663</ele><time>2026-04-26T12:50:55.918Z</time></trkpt><trkpt lat="40.13672995248698" lon="8.74683504956697"><ele>355.3333333333333</ele><time>2026-04-26T12:50:56.918Z</time></trkpt><trkpt lat="40.1366926351339" lon="8.746641242255997"><ele>357.0</ele><time>2026-04-26T12:50:57.918Z</time></trkpt><trkpt lat="40.13665099209971" lon="8.746467679470353"><ele>357.0</ele><time>2026-04-26T12:50:58.918Z</time></trkpt><trkpt lat="40.136609516873825" lon="8.746295241275572"><ele>357.0</ele><time>2026-04-26T12:50:59.918Z</time></trkpt><trkpt lat="40.136547421511125" lon="8.746135548829074"><ele>357.0</ele><time>2026-04-26T12:51:00.918Z</time></trkpt><trkpt lat="40.136487220312276" lon="8.745980486120633"><ele>357.0</ele><time>2026-04-26T12:51:01.918Z</time></trkpt><trkpt lat="40.13640695229167" lon="8.745836388046847"><ele>356.6</ele><time>2026-04-26T12:51:02.918Z</time></trkpt><trkpt lat="40.13633564724326" lon="8.745698616964797"><ele>356.20000000000005</ele><time>2026-04-26T12:51:03.918Z</time></trkpt><trkpt lat="40.136271487069656" lon="8.745576205291563"><ele>355.8</ele><time>2026-04-26T12:51:04.918Z</time></trkpt><trkpt lat="40.13622165777016" lon="8.745466000303013"><ele>355.4</ele><time>2026-04-26T12:51:05.918Z</time></trkpt><trkpt lat="40.13618110828766" lon="8.745353371580379"><ele>355.0</ele><time>2026-04-26T12:51:06.918Z</time></trkpt><trkpt lat="40.13616009747987" lon="8.745238575237188"><ele>356.25</ele><time>2026-04-26T12:51:07.918Z</time></trkpt><trkpt lat="40.136144414253195" lon="8.745102787176448"><ele>357.5</ele><time>2026-04-26T12:51:08.918Z</time></trkpt><trkpt lat="40.13614863579968" lon="8.744944414348279"><ele>358.75</ele><time>2026-04-26T12:51:09.918Z</time></trkpt><trkpt lat="40.13616839417792" lon="8.744784931769459"><ele>360.0</ele><time>2026-04-26T12:51:10.918Z</time></trkpt><trkpt lat="40.136194373994904" lon="8.744610784228122"><ele>360.0</ele><time>2026-04-26T12:51:11.918Z</time></trkpt><trkpt lat="40.13621989543633" lon="8.744432241522883"><ele>360.0</ele><time>2026-04-26T12:51:12.918Z</time></trkpt><trkpt lat="40.13624520716999" lon="8.744236184102439"><ele>360.0</ele><time>2026-04-26T12:51:13.918Z</time></trkpt><trkpt lat="40.13626996798975" lon="8.74404173803119"><ele>360.0</ele><time>2026-04-26T12:51:14.918Z</time></trkpt><trkpt lat="40.13629510697981" lon="8.743852485954294"><ele>360.6666666666667</ele><time>2026-04-26T12:51:15.918Z</time></trkpt><trkpt lat="40.13631795022636" lon="8.743666741563127"><ele>361.33333333333337</ele><time>2026-04-26T12:51:16.918Z</time></trkpt><trkpt lat="40.1363439058193" lon="8.743468119158488"><ele>362.0</ele><time>2026-04-26T12:51:17.918Z</time></trkpt><trkpt lat="40.13637130914652" lon="8.743270806238998"><ele>362.25</ele><time>2026-04-26T12:51:18.918Z</time></trkpt><trkpt lat="40.13639225211865" lon="8.74307238778459"><ele>362.5</ele><time>2026-04-26T12:51:19.918Z</time></trkpt><trkpt lat="40.13640353313873" lon="8.742898792890783"><ele>362.75</ele><time>2026-04-26T12:51:20.918Z</time></trkpt><trkpt lat="40.136423226918254" lon="8.742761233086359"><ele>363.0</ele><time>2026-04-26T12:51:21.918Z</time></trkpt><trkpt lat="40.13643632760953" lon="8.7426630014294"><ele>363.6666666666667</ele><time>2026-04-26T12:51:22.918Z</time></trkpt><trkpt lat="40.1364581242906" lon="8.742508870435875"><ele>364.3333333333333</ele><time>2026-04-26T12:51:24.918Z</time></trkpt><trkpt lat="40.13646668643154" lon="8.742361724900586"><ele>365.0</ele><time>2026-04-26T12:51:26.918Z</time></trkpt><trkpt lat="40.13647475846427" lon="8.742263885877383"><ele>365.66666666666663</ele><time>2026-04-26T12:51:27.918Z</time></trkpt><trkpt lat="40.136491313214925" lon="8.742170859030647"><ele>366.3333333333333</ele><time>2026-04-26T12:51:28.918Z</time></trkpt><trkpt lat="40.13650001986356" lon="8.742087998849186"><ele>367.0</ele><time>2026-04-26T12:51:29.918Z</time></trkpt><trkpt lat="40.136531109522515" lon="8.74200481417686"><ele>367.0</ele><time>2026-04-26T12:51:31.918Z</time></trkpt><trkpt lat="40.136455161939324" lon="8.741970261573021"><ele>367.0</ele><time>2026-04-26T12:51:32.918Z</time></trkpt><trkpt lat="40.13637899748643" lon="8.741983887490996"><ele>367.0</ele><time>2026-04-26T12:51:35.918Z</time></trkpt><trkpt lat="40.136330066605815" lon="8.74216009641043"><ele>367.0</ele><time>2026-04-26T12:51:38.918Z</time></trkpt><trkpt lat="40.13631405580234" lon="8.74229436952572"><ele>367.0</ele><time>2026-04-26T12:51:40.918Z</time></trkpt><trkpt lat="40.13629975832192" lon="8.742432292632577"><ele>367.0</ele><time>2026-04-26T12:51:42.918Z</time></trkpt><trkpt lat="40.136287546981755" lon="8.742550091228312"><ele>367.0</ele><time>2026-04-26T12:51:44.919Z</time></trkpt><trkpt lat="40.136275614466236" lon="8.7426652001124"><ele>367.0</ele><time>2026-04-26T12:51:46.919Z</time></trkpt><trkpt lat="40.13635776535362" lon="8.742745443288443"><ele>367.0</ele><time>2026-04-26T12:52:06.919Z</time></trkpt><trkpt lat="40.13630958195674" lon="8.742688602134944"><ele>367.0</ele><time>2026-04-26T12:52:14.917Z</time></trkpt><trkpt lat="40.13638027845265" lon="8.742755533008367"><ele>367.0</ele><time>2026-04-26T13:18:09.898Z</time></trkpt><trkpt lat="40.13640617035499" lon="8.742858091830493"><ele>366.20000000000005</ele><time>2026-04-26T13:18:12.898Z</time></trkpt><trkpt lat="40.136377843167196" lon="8.74297247142852"><ele>365.4</ele><time>2026-04-26T13:18:14.898Z</time></trkpt><trkpt lat="40.13635601389589" lon="8.743098533733324"><ele>364.6</ele><time>2026-04-26T13:18:16.898Z</time></trkpt><trkpt lat="40.13633374075916" lon="8.743261801191549"><ele>363.79999999999995</ele><time>2026-04-26T13:18:18.898Z</time></trkpt><trkpt lat="40.136318284605245" lon="8.743349977361172"><ele>363.0</ele><time>2026-04-26T13:18:19.898Z</time></trkpt><trkpt lat="40.136305650374055" lon="8.743437340367201"><ele>363.0</ele><time>2026-04-26T13:18:20.898Z</time></trkpt><trkpt lat="40.13629480623793" lon="8.743536228352392"><ele>363.0</ele><time>2026-04-26T13:18:21.898Z</time></trkpt><trkpt lat="40.136283170224374" lon="8.743640986105277"><ele>363.0</ele><time>2026-04-26T13:18:22.898Z</time></trkpt><trkpt lat="40.13625897233685" lon="8.743752225498621"><ele>363.0</ele><time>2026-04-26T13:18:23.898Z</time></trkpt><trkpt lat="40.13624468906064" lon="8.743864711133302"><ele>363.0</ele><time>2026-04-26T13:18:24.898Z</time></trkpt><trkpt lat="40.136237256391084" lon="8.743975319184988"><ele>363.0</ele><time>2026-04-26T13:18:25.898Z</time></trkpt><trkpt lat="40.1362171657292" lon="8.74408180517161"><ele>362.79999999999995</ele><time>2026-04-26T13:18:26.898Z</time></trkpt><trkpt lat="40.13620730378417" lon="8.744200900978054"><ele>362.6</ele><time>2026-04-26T13:18:27.898Z</time></trkpt><trkpt lat="40.1361955136386" lon="8.744324787866416"><ele>362.4</ele><time>2026-04-26T13:18:28.898Z</time></trkpt><trkpt lat="40.136181614672665" lon="8.74443708048311"><ele>362.20000000000005</ele><time>2026-04-26T13:18:29.898Z</time></trkpt><trkpt lat="40.136169293896245" lon="8.744556976724713"><ele>362.0</ele><time>2026-04-26T13:18:30.898Z</time></trkpt><trkpt lat="40.13615519947618" lon="8.744677788729994"><ele>361.6</ele><time>2026-04-26T13:18:31.898Z</time></trkpt><trkpt lat="40.136135568199514" lon="8.744796000227813"><ele>361.20000000000005</ele><time>2026-04-26T13:18:32.898Z</time></trkpt><trkpt lat="40.136130125623396" lon="8.744913083302274"><ele>360.8</ele><time>2026-04-26T13:18:33.898Z</time></trkpt><trkpt lat="40.13612730095749" lon="8.745034044688017"><ele>360.4</ele><time>2026-04-26T13:18:34.898Z</time></trkpt><trkpt lat="40.13612410421717" lon="8.745150106228916"><ele>360.0</ele><time>2026-04-26T13:18:35.898Z</time></trkpt><trkpt lat="40.13613614820557" lon="8.745267947646214"><ele>359.0</ele><time>2026-04-26T13:18:36.898Z</time></trkpt><trkpt lat="40.13616206782112" lon="8.74539009545077"><ele>358.0</ele><time>2026-04-26T13:18:37.898Z</time></trkpt><trkpt lat="40.13621069920425" lon="8.745507699398695"><ele>357.0</ele><time>2026-04-26T13:18:38.898Z</time></trkpt><trkpt lat="40.13624873016294" lon="8.745618254618776"><ele>356.0</ele><time>2026-04-26T13:18:39.898Z</time></trkpt><trkpt lat="40.13630086096268" lon="8.745719778639254"><ele>355.0</ele><time>2026-04-26T13:18:40.898Z</time></trkpt><trkpt lat="40.1363493084479" lon="8.745824830506784"><ele>355.0</ele><time>2026-04-26T13:18:41.898Z</time></trkpt><trkpt lat="40.13640747688105" lon="8.745931213699485"><ele>355.0</ele><time>2026-04-26T13:18:42.898Z</time></trkpt><trkpt lat="40.136459868642696" lon="8.746038344593723"><ele>355.0</ele><time>2026-04-26T13:18:43.898Z</time></trkpt><trkpt lat="40.13650917002106" lon="8.746142923368666"><ele>355.0</ele><time>2026-04-26T13:18:44.898Z</time></trkpt><trkpt lat="40.13655901952035" lon="8.746256420203812"><ele>355.0</ele><time>2026-04-26T13:18:45.898Z</time></trkpt><trkpt lat="40.136598822758685" lon="8.746375012600684"><ele>355.5</ele><time>2026-04-26T13:18:46.898Z</time></trkpt><trkpt lat="40.136628705289375" lon="8.74649890679014"><ele>356.0</ele><time>2026-04-26T13:18:47.898Z</time></trkpt><trkpt lat="40.13665255540057" lon="8.746646179946826"><ele>356.5</ele><time>2026-04-26T13:18:48.898Z</time></trkpt><trkpt lat="40.13668641117193" lon="8.746797940376402"><ele>357.0</ele><time>2026-04-26T13:18:49.898Z</time></trkpt><trkpt lat="40.13671790190268" lon="8.74694704109294"><ele>355.75</ele><time>2026-04-26T13:18:50.898Z</time></trkpt><trkpt lat="40.136746206092354" lon="8.747102028359047"><ele>354.5</ele><time>2026-04-26T13:18:51.898Z</time></trkpt><trkpt lat="40.13677909477666" lon="8.74725677329778"><ele>353.25</ele><time>2026-04-26T13:18:52.898Z</time></trkpt><trkpt lat="40.13681342127652" lon="8.747408918881419"><ele>352.0</ele><time>2026-04-26T13:18:53.898Z</time></trkpt><trkpt lat="40.13684907183833" lon="8.747566069750693"><ele>351.5</ele><time>2026-04-26T13:18:54.898Z</time></trkpt><trkpt lat="40.13688053369135" lon="8.747726905817276"><ele>351.0</ele><time>2026-04-26T13:18:55.898Z</time></trkpt><trkpt lat="40.13691315623076" lon="8.747888864171268"><ele>350.5</ele><time>2026-04-26T13:18:56.898Z</time></trkpt><trkpt lat="40.13694609084091" lon="8.748049804621154"><ele>350.0</ele><time>2026-04-26T13:18:57.898Z</time></trkpt><trkpt lat="40.136979291390915" lon="8.748211398938768"><ele>350.0</ele><time>2026-04-26T13:18:58.898Z</time></trkpt><trkpt lat="40.137007455881154" lon="8.74837155224114"><ele>350.0</ele><time>2026-04-26T13:18:59.898Z</time></trkpt><trkpt lat="40.13704006972398" lon="8.748523489861824"><ele>350.0</ele><time>2026-04-26T13:19:00.898Z</time></trkpt><trkpt lat="40.13707160868421" lon="8.748682886935221"><ele>350.0</ele><time>2026-04-26T13:19:01.898Z</time></trkpt><trkpt lat="40.13710556203646" lon="8.748837789022678"><ele>349.5</ele><time>2026-04-26T13:19:02.898Z</time></trkpt><trkpt lat="40.13714315092991" lon="8.748988279815553"><ele>349.0</ele><time>2026-04-26T13:19:03.898Z</time></trkpt><trkpt lat="40.13716439300307" lon="8.74915149451544"><ele>348.5</ele><time>2026-04-26T13:19:04.898Z</time></trkpt><trkpt lat="40.13719650967861" lon="8.749311801241344"><ele>348.0</ele><time>2026-04-26T13:19:05.898Z</time></trkpt><trkpt lat="40.137242691676896" lon="8.749466836720249"><ele>347.75</ele><time>2026-04-26T13:19:06.898Z</time></trkpt><trkpt lat="40.13727361974095" lon="8.7496304982752"><ele>347.5</ele><time>2026-04-26T13:19:07.898Z</time></trkpt><trkpt lat="40.13730170316724" lon="8.749787871103388"><ele>347.25</ele><time>2026-04-26T13:19:08.898Z</time></trkpt><trkpt lat="40.1373285618178" lon="8.749948380405277"><ele>347.0</ele><time>2026-04-26T13:19:09.898Z</time></trkpt><trkpt lat="40.137360678472106" lon="8.750112210134217"><ele>347.25</ele><time>2026-04-26T13:19:10.898Z</time></trkpt><trkpt lat="40.137384361051694" lon="8.750268278258163"><ele>347.5</ele><time>2026-04-26T13:19:11.898Z</time></trkpt><trkpt lat="40.137408339844086" lon="8.750428815740431"><ele>347.75</ele><time>2026-04-26T13:19:12.898Z</time></trkpt><trkpt lat="40.13743599662354" lon="8.750588499884445"><ele>348.0</ele><time>2026-04-26T13:19:13.898Z</time></trkpt><trkpt lat="40.13747233343738" lon="8.750753999396057"><ele>348.25</ele><time>2026-04-26T13:19:14.898Z</time></trkpt><trkpt lat="40.13750204148141" lon="8.75092152119648"><ele>348.5</ele><time>2026-04-26T13:19:15.898Z</time></trkpt><trkpt lat="40.13752928327757" lon="8.751087327442631"><ele>348.75</ele><time>2026-04-26T13:19:16.898Z</time></trkpt><trkpt lat="40.13755864278276" lon="8.75125284403576"><ele>349.0</ele><time>2026-04-26T13:19:17.898Z</time></trkpt><trkpt lat="40.13759451774451" lon="8.751424181045888"><ele>348.25</ele><time>2026-04-26T13:19:18.898Z</time></trkpt><trkpt lat="40.137632411279945" lon="8.751595407513323"><ele>347.5</ele><time>2026-04-26T13:19:19.898Z</time></trkpt><trkpt lat="40.13767266387559" lon="8.751760095497797"><ele>346.75</ele><time>2026-04-26T13:19:20.898Z</time></trkpt><trkpt lat="40.137718858671754" lon="8.751927305439004"><ele>346.0</ele><time>2026-04-26T13:19:21.898Z</time></trkpt><trkpt lat="40.137759324818575" lon="8.75209660988051"><ele>346.0</ele><time>2026-04-26T13:19:22.898Z</time></trkpt><trkpt lat="40.13779288194564" lon="8.752268011563643"><ele>346.0</ele><time>2026-04-26T13:19:23.898Z</time></trkpt><trkpt lat="40.13782896174728" lon="8.752438600277152"><ele>346.0</ele><time>2026-04-26T13:19:24.898Z</time></trkpt><trkpt lat="40.13786459611543" lon="8.752614503400766"><ele>346.0</ele><time>2026-04-26T13:19:25.898Z</time></trkpt><trkpt lat="40.137901396768825" lon="8.752788196625245"><ele>346.5</ele><time>2026-04-26T13:19:26.897Z</time></trkpt><trkpt lat="40.13792534580742" lon="8.752968784895208"><ele>347.0</ele><time>2026-04-26T13:19:27.896Z</time></trkpt><trkpt lat="40.13796036715659" lon="8.753145518785058"><ele>347.5</ele><time>2026-04-26T13:19:28.896Z</time></trkpt><trkpt lat="40.13799483825807" lon="8.75331947587109"><ele>348.0</ele><time>2026-04-26T13:19:29.896Z</time></trkpt><trkpt lat="40.13802863113681" lon="8.753490010031525"><ele>348.5</ele><time>2026-04-26T13:19:30.897Z</time></trkpt><trkpt lat="40.13806070249806" lon="8.753653183828751"><ele>349.0</ele><time>2026-04-26T13:19:31.897Z</time></trkpt><trkpt lat="40.13809123955123" lon="8.753808711363"><ele>349.5</ele><time>2026-04-26T13:19:32.897Z</time></trkpt><trkpt lat="40.13812176087081" lon="8.753964158776917"><ele>350.0</ele><time>2026-04-26T13:19:33.897Z</time></trkpt><trkpt lat="40.13813905513611" lon="8.754106174595362"><ele>350.0</ele><time>2026-04-26T13:19:34.897Z</time></trkpt><trkpt lat="40.13817068430631" lon="8.75425821253518"><ele>350.0</ele><time>2026-04-26T13:19:35.897Z</time></trkpt><trkpt lat="40.138203628634336" lon="8.754412970222418"><ele>350.0</ele><time>2026-04-26T13:19:36.897Z</time></trkpt><trkpt lat="40.13823676412482" lon="8.754569376425799"><ele>350.0</ele><time>2026-04-26T13:19:37.897Z</time></trkpt><trkpt lat="40.13827084455484" lon="8.754729393902338"><ele>349.75</ele><time>2026-04-26T13:19:38.896Z</time></trkpt><trkpt lat="40.138303692366556" lon="8.754894450383686"><ele>349.5</ele><time>2026-04-26T13:19:39.896Z</time></trkpt><trkpt lat="40.13833909842452" lon="8.75506777033537"><ele>349.25</ele><time>2026-04-26T13:19:40.896Z</time></trkpt><trkpt lat="40.13837786135902" lon="8.755245233065764"><ele>349.0</ele><time>2026-04-26T13:19:41.896Z</time></trkpt><trkpt lat="40.13841204177208" lon="8.755424217209482"><ele>347.5</ele><time>2026-04-26T13:19:42.896Z</time></trkpt><trkpt lat="40.138445646400456" lon="8.755598948531254"><ele>346.0</ele><time>2026-04-26T13:19:43.896Z</time></trkpt><trkpt lat="40.1384774865658" lon="8.755778804552014"><ele>344.5</ele><time>2026-04-26T13:19:44.896Z</time></trkpt><trkpt lat="40.13850976875751" lon="8.755959966671956"><ele>343.0</ele><time>2026-04-26T13:19:45.896Z</time></trkpt><trkpt lat="40.138540109009405" lon="8.756135852168654"><ele>342.5</ele><time>2026-04-26T13:19:46.896Z</time></trkpt><trkpt lat="40.13857053101419" lon="8.756314451224712"><ele>342.0</ele><time>2026-04-26T13:19:47.896Z</time></trkpt><trkpt lat="40.13860528891855" lon="8.756493660777192"><ele>341.5</ele><time>2026-04-26T13:19:48.896Z</time></trkpt><trkpt lat="40.138641878967626" lon="8.756675199380428"><ele>341.0</ele><time>2026-04-26T13:19:49.896Z</time></trkpt><trkpt lat="40.138678542103236" lon="8.75685818380524"><ele>340.75</ele><time>2026-04-26T13:19:50.896Z</time></trkpt><trkpt lat="40.1387127809067" lon="8.757041696839426"><ele>340.5</ele><time>2026-04-26T13:19:51.896Z</time></trkpt><trkpt lat="40.1387437188974" lon="8.757220877018568"><ele>340.25</ele><time>2026-04-26T13:19:52.896Z</time></trkpt><trkpt lat="40.13877833623974" lon="8.75740114933753"><ele>340.0</ele><time>2026-04-26T13:19:53.896Z</time></trkpt><trkpt lat="40.13881009742101" lon="8.75758463794204"><ele>339.5</ele><time>2026-04-26T13:19:54.896Z</time></trkpt><trkpt lat="40.13885399429289" lon="8.757771034297004"><ele>339.0</ele><time>2026-04-26T13:19:55.896Z</time></trkpt><trkpt lat="40.13889974252141" lon="8.757957110690016"><ele>338.5</ele><time>2026-04-26T13:19:56.896Z</time></trkpt><trkpt lat="40.13893470584827" lon="8.758141183278493"><ele>338.0</ele><time>2026-04-26T13:19:57.896Z</time></trkpt><trkpt lat="40.13897402946595" lon="8.75833070194123"><ele>338.0</ele><time>2026-04-26T13:19:58.896Z</time></trkpt><trkpt lat="40.139011403022614" lon="8.758517291730278"><ele>338.0</ele><time>2026-04-26T13:19:59.896Z</time></trkpt><trkpt lat="40.13905010943089" lon="8.758702603128734"><ele>338.0</ele><time>2026-04-26T13:20:00.896Z</time></trkpt><trkpt lat="40.139091662881384" lon="8.75888705980899"><ele>338.0</ele><time>2026-04-26T13:20:01.896Z</time></trkpt><trkpt lat="40.13912512276631" lon="8.75906873524537"><ele>337.75</ele><time>2026-04-26T13:20:02.896Z</time></trkpt><trkpt lat="40.13916182112018" lon="8.759251179157593"><ele>337.5</ele><time>2026-04-26T13:20:03.896Z</time></trkpt><trkpt lat="40.13919651072396" lon="8.759432536291083"><ele>337.25</ele><time>2026-04-26T13:20:04.896Z</time></trkpt><trkpt lat="40.139233433700454" lon="8.759615615916095"><ele>337.0</ele><time>2026-04-26T13:20:05.896Z</time></trkpt><trkpt lat="40.13927003651356" lon="8.759798565194977"><ele>337.0</ele><time>2026-04-26T13:20:06.896Z</time></trkpt><trkpt lat="40.13930905452383" lon="8.759981345444036"><ele>337.0</ele><time>2026-04-26T13:20:07.896Z</time></trkpt><trkpt lat="40.13934612626537" lon="8.760161964524714"><ele>337.0</ele><time>2026-04-26T13:20:08.896Z</time></trkpt><trkpt lat="40.13938300920516" lon="8.760344484587346"><ele>337.0</ele><time>2026-04-26T13:20:09.896Z</time></trkpt><trkpt lat="40.139417877376395" lon="8.76052618743367"><ele>337.0</ele><time>2026-04-26T13:20:10.896Z</time></trkpt><trkpt lat="40.139453581124585" lon="8.76070550248608"><ele>337.0</ele><time>2026-04-26T13:20:11.896Z</time></trkpt><trkpt lat="40.1394937563938" lon="8.760887684408415"><ele>337.0</ele><time>2026-04-26T13:20:12.896Z</time></trkpt><trkpt lat="40.139529639067376" lon="8.76107008204898"><ele>337.0</ele><time>2026-04-26T13:20:13.896Z</time></trkpt><trkpt lat="40.139563623367025" lon="8.761251714093195"><ele>337.0</ele><time>2026-04-26T13:20:14.896Z</time></trkpt><trkpt lat="40.13959712378568" lon="8.761434892910358"><ele>337.0</ele><time>2026-04-26T13:20:15.896Z</time></trkpt><trkpt lat="40.139626928678766" lon="8.761614894604332"><ele>337.0</ele><time>2026-04-26T13:20:16.896Z</time></trkpt><trkpt lat="40.13966078700002" lon="8.761794675280573"><ele>337.0</ele><time>2026-04-26T13:20:17.896Z</time></trkpt><trkpt lat="40.13969795749902" lon="8.761974835935787"><ele>337.0</ele><time>2026-04-26T13:20:18.896Z</time></trkpt><trkpt lat="40.13973191197243" lon="8.762156331163519"><ele>337.0</ele><time>2026-04-26T13:20:19.896Z</time></trkpt><trkpt lat="40.139768337516436" lon="8.762338071319695"><ele>337.0</ele><time>2026-04-26T13:20:20.896Z</time></trkpt><trkpt lat="40.139802688671615" lon="8.762520557790568"><ele>337.0</ele><time>2026-04-26T13:20:21.896Z</time></trkpt><trkpt lat="40.13983755991054" lon="8.76270375859398"><ele>336.75</ele><time>2026-04-26T13:20:22.896Z</time></trkpt><trkpt lat="40.139870904679036" lon="8.762888755156402"><ele>336.5</ele><time>2026-04-26T13:20:23.896Z</time></trkpt><trkpt lat="40.13990922908966" lon="8.763075228056058"><ele>336.25</ele><time>2026-04-26T13:20:24.896Z</time></trkpt><trkpt lat="40.13994834443759" lon="8.763270226531427"><ele>336.0</ele><time>2026-04-26T13:20:25.896Z</time></trkpt><trkpt lat="40.13998260603091" lon="8.763462023869716"><ele>335.0</ele><time>2026-04-26T13:20:26.896Z</time></trkpt><trkpt lat="40.140015251273574" lon="8.763655836421655"><ele>334.0</ele><time>2026-04-26T13:20:27.896Z</time></trkpt><trkpt lat="40.140049507700866" lon="8.76384709390185"><ele>333.0</ele><time>2026-04-26T13:20:28.896Z</time></trkpt><trkpt lat="40.140079990210154" lon="8.764037173612802"><ele>333.0</ele><time>2026-04-26T13:20:29.896Z</time></trkpt><trkpt lat="40.140112641123046" lon="8.764229455422484"><ele>333.0</ele><time>2026-04-26T13:20:30.896Z</time></trkpt><trkpt lat="40.140140457152015" lon="8.764423438147167"><ele>333.0</ele><time>2026-04-26T13:20:31.896Z</time></trkpt><trkpt lat="40.140165967366144" lon="8.764618823077656"><ele>333.5</ele><time>2026-04-26T13:20:32.896Z</time></trkpt><trkpt lat="40.140181563472694" lon="8.764811539791168"><ele>334.0</ele><time>2026-04-26T13:20:33.896Z</time></trkpt><trkpt lat="40.14019327047656" lon="8.764996488255655"><ele>334.5</ele><time>2026-04-26T13:20:34.896Z</time></trkpt><trkpt lat="40.140202250392505" lon="8.765178779571732"><ele>335.0</ele><time>2026-04-26T13:20:35.896Z</time></trkpt><trkpt lat="40.14021615785998" lon="8.765360938697988"><ele>335.0</ele><time>2026-04-26T13:20:36.896Z</time></trkpt><trkpt lat="40.14023041910931" lon="8.765545919896741"><ele>335.0</ele><time>2026-04-26T13:20:37.896Z</time></trkpt><trkpt lat="40.140246936867825" lon="8.765719492685248"><ele>335.0</ele><time>2026-04-26T13:20:38.896Z</time></trkpt><trkpt lat="40.14026877013757" lon="8.765894855453876"><ele>335.0</ele><time>2026-04-26T13:20:39.896Z</time></trkpt><trkpt lat="40.14028688909532" lon="8.766077225103553"><ele>335.0</ele><time>2026-04-26T13:20:40.896Z</time></trkpt><trkpt lat="40.14030388538003" lon="8.766265195424163"><ele>335.0</ele><time>2026-04-26T13:20:41.897Z</time></trkpt><trkpt lat="40.14031976647957" lon="8.766451909382688"><ele>335.0</ele><time>2026-04-26T13:20:42.897Z</time></trkpt><trkpt lat="40.140329909534366" lon="8.766633116137736"><ele>335.0</ele><time>2026-04-26T13:20:43.897Z</time></trkpt><trkpt lat="40.14033979944563" lon="8.766812913867513"><ele>334.75</ele><time>2026-04-26T13:20:44.897Z</time></trkpt><trkpt lat="40.14033530794685" lon="8.766998271053417"><ele>334.5</ele><time>2026-04-26T13:20:45.897Z</time></trkpt><trkpt lat="40.14031390954482" lon="8.767183299953697"><ele>334.25</ele><time>2026-04-26T13:20:46.897Z</time></trkpt><trkpt lat="40.14026052020728" lon="8.767363157684226"><ele>334.0</ele><time>2026-04-26T13:20:47.897Z</time></trkpt><trkpt lat="40.1402205446104" lon="8.767546310182558"><ele>334.0</ele><time>2026-04-26T13:20:48.897Z</time></trkpt><trkpt lat="40.1401831234677" lon="8.767723996739516"><ele>334.0</ele><time>2026-04-26T13:20:49.897Z</time></trkpt><trkpt lat="40.14016097665756" lon="8.76790276136539"><ele>334.0</ele><time>2026-04-26T13:20:50.897Z</time></trkpt><trkpt lat="40.14011126199957" lon="8.768076571250573"><ele>334.0</ele><time>2026-04-26T13:20:51.897Z</time></trkpt><trkpt lat="40.140069974632546" lon="8.768261235865259"><ele>334.0</ele><time>2026-04-26T13:20:52.897Z</time></trkpt><trkpt lat="40.14002823671058" lon="8.768445232451619"><ele>334.0</ele><time>2026-04-26T13:20:53.897Z</time></trkpt><trkpt lat="40.13998750113164" lon="8.76863180038586"><ele>334.0</ele><time>2026-04-26T13:20:54.897Z</time></trkpt><trkpt lat="40.13994828082619" lon="8.76882305477452"><ele>334.0</ele><time>2026-04-26T13:20:55.897Z</time></trkpt><trkpt lat="40.139910633173784" lon="8.769013287982565"><ele>334.0</ele><time>2026-04-26T13:20:56.897Z</time></trkpt><trkpt lat="40.13987125603883" lon="8.769204864923502"><ele>334.0</ele><time>2026-04-26T13:20:57.897Z</time></trkpt><trkpt lat="40.13983247167373" lon="8.76939438508215"><ele>334.0</ele><time>2026-04-26T13:20:58.897Z</time></trkpt><trkpt lat="40.13979571271725" lon="8.76958210082831"><ele>334.0</ele><time>2026-04-26T13:20:59.897Z</time></trkpt><trkpt lat="40.13975671519215" lon="8.76976702523884"><ele>334.0</ele><time>2026-04-26T13:21:00.897Z</time></trkpt><trkpt lat="40.13971831767275" lon="8.769952664140012"><ele>334.0</ele><time>2026-04-26T13:21:01.897Z</time></trkpt><trkpt lat="40.13967785639769" lon="8.770135747601904"><ele>334.0</ele><time>2026-04-26T13:21:02.897Z</time></trkpt><trkpt lat="40.139637035690676" lon="8.770316744987657"><ele>334.25</ele><time>2026-04-26T13:21:03.897Z</time></trkpt><trkpt lat="40.139595337663266" lon="8.770498537669104"><ele>334.5</ele><time>2026-04-26T13:21:04.897Z</time></trkpt><trkpt lat="40.13955609580792" lon="8.770679987258779"><ele>334.75</ele><time>2026-04-26T13:21:05.897Z</time></trkpt><trkpt lat="40.13951515614004" lon="8.770852977596196"><ele>335.0</ele><time>2026-04-26T13:21:06.897Z</time></trkpt><trkpt lat="40.13947999482845" lon="8.77103605072515"><ele>335.25</ele><time>2026-04-26T13:21:07.897Z</time></trkpt><trkpt lat="40.13944320885682" lon="8.771220155841556"><ele>335.5</ele><time>2026-04-26T13:21:08.897Z</time></trkpt><trkpt lat="40.13940600866271" lon="8.771407794362323"><ele>335.75</ele><time>2026-04-26T13:21:09.897Z</time></trkpt><trkpt lat="40.13936779284499" lon="8.771590348240645"><ele>336.0</ele><time>2026-04-26T13:21:10.897Z</time></trkpt><trkpt lat="40.13933027749782" lon="8.771774097844034"><ele>336.0</ele><time>2026-04-26T13:21:11.897Z</time></trkpt><trkpt lat="40.13929184721618" lon="8.771959950778054"><ele>336.0</ele><time>2026-04-26T13:21:12.897Z</time></trkpt><trkpt lat="40.139252707110224" lon="8.77214563126789"><ele>336.0</ele><time>2026-04-26T13:21:13.897Z</time></trkpt><trkpt lat="40.13921262246228" lon="8.772330993521647"><ele>336.0</ele><time>2026-04-26T13:21:14.897Z</time></trkpt><trkpt lat="40.13917226022866" lon="8.772515165405265"><ele>336.25</ele><time>2026-04-26T13:21:15.897Z</time></trkpt><trkpt lat="40.13913106591802" lon="8.77269778167283"><ele>336.5</ele><time>2026-04-26T13:21:16.897Z</time></trkpt><trkpt lat="40.13908841600257" lon="8.772882223764359"><ele>336.75</ele><time>2026-04-26T13:21:17.897Z</time></trkpt><trkpt lat="40.13904868722706" lon="8.773071065062535"><ele>337.0</ele><time>2026-04-26T13:21:18.897Z</time></trkpt><trkpt lat="40.139008540022346" lon="8.773259059774151"><ele>336.3333333333333</ele><time>2026-04-26T13:21:19.897Z</time></trkpt><trkpt lat="40.13896984601732" lon="8.773446193570779"><ele>335.6666666666667</ele><time>2026-04-26T13:21:20.897Z</time></trkpt><trkpt lat="40.13893347319925" lon="8.773636959771954"><ele>335.0</ele><time>2026-04-26T13:21:21.897Z</time></trkpt><trkpt lat="40.138894878570916" lon="8.773830214641867"><ele>335.0</ele><time>2026-04-26T13:21:22.897Z</time></trkpt><trkpt lat="40.138855602352976" lon="8.774020339924729"><ele>335.0</ele><time>2026-04-26T13:21:23.897Z</time></trkpt><trkpt lat="40.138816112535864" lon="8.774212818759462"><ele>335.0</ele><time>2026-04-26T13:21:24.897Z</time></trkpt><trkpt lat="40.1387752606414" lon="8.774406814898072"><ele>335.6666666666667</ele><time>2026-04-26T13:21:25.897Z</time></trkpt><trkpt lat="40.13873277198519" lon="8.774601399571921"><ele>336.3333333333333</ele><time>2026-04-26T13:21:26.897Z</time></trkpt><trkpt lat="40.13869128803944" lon="8.77479570105208"><ele>337.0</ele><time>2026-04-26T13:21:27.897Z</time></trkpt><trkpt lat="40.13865019882565" lon="8.774987852993867"><ele>337.0</ele><time>2026-04-26T13:21:28.897Z</time></trkpt><trkpt lat="40.13861115393399" lon="8.775186052022537"><ele>337.0</ele><time>2026-04-26T13:21:29.897Z</time></trkpt><trkpt lat="40.13856898700242" lon="8.775379376499515"><ele>337.0</ele><time>2026-04-26T13:21:30.897Z</time></trkpt><trkpt lat="40.1385287813618" lon="8.77557449197713"><ele>337.3333333333333</ele><time>2026-04-26T13:21:31.897Z</time></trkpt><trkpt lat="40.138488577469964" lon="8.775765281265164"><ele>337.6666666666667</ele><time>2026-04-26T13:21:32.895Z</time></trkpt><trkpt lat="40.138447983466946" lon="8.77595845060106"><ele>338.0</ele><time>2026-04-26T13:21:33.895Z</time></trkpt><trkpt lat="40.13841125974528" lon="8.776147551376177"><ele>338.0</ele><time>2026-04-26T13:21:34.895Z</time></trkpt><trkpt lat="40.13836722654071" lon="8.776337553537829"><ele>338.0</ele><time>2026-04-26T13:21:35.895Z</time></trkpt><trkpt lat="40.13833031463556" lon="8.776522211695571"><ele>338.0</ele><time>2026-04-26T13:21:36.895Z</time></trkpt><trkpt lat="40.1382923996076" lon="8.776717365476047"><ele>338.0</ele><time>2026-04-26T13:21:37.895Z</time></trkpt><trkpt lat="40.13825278161498" lon="8.77690664955452"><ele>338.0</ele><time>2026-04-26T13:21:38.895Z</time></trkpt><trkpt lat="40.1382125048727" lon="8.777096483936958"><ele>338.0</ele><time>2026-04-26T13:21:39.896Z</time></trkpt><trkpt lat="40.13817058556523" lon="8.77728304854869"><ele>338.0</ele><time>2026-04-26T13:21:40.896Z</time></trkpt><trkpt lat="40.13813117473032" lon="8.777472750010183"><ele>337.6666666666667</ele><time>2026-04-26T13:21:41.895Z</time></trkpt><trkpt lat="40.13809010065934" lon="8.777661279506322"><ele>337.3333333333333</ele><time>2026-04-26T13:21:42.896Z</time></trkpt><trkpt lat="40.13804851071288" lon="8.777852506610007"><ele>337.0</ele><time>2026-04-26T13:21:43.896Z</time></trkpt><trkpt lat="40.13800797551361" lon="8.778043259308026"><ele>337.66666666666663</ele><time>2026-04-26T13:21:44.896Z</time></trkpt><trkpt lat="40.137964483949155" lon="8.778238583236686"><ele>338.3333333333333</ele><time>2026-04-26T13:21:45.895Z</time></trkpt><trkpt lat="40.13792387475598" lon="8.778431856394105"><ele>339.0</ele><time>2026-04-26T13:21:46.895Z</time></trkpt><trkpt lat="40.13788055358797" lon="8.77863009009503"><ele>339.3333333333333</ele><time>2026-04-26T13:21:47.895Z</time></trkpt><trkpt lat="40.137839076929694" lon="8.778826181491103"><ele>339.66666666666663</ele><time>2026-04-26T13:21:48.895Z</time></trkpt><trkpt lat="40.13780152394083" lon="8.779023080693712"><ele>340.0</ele><time>2026-04-26T13:21:49.895Z</time></trkpt><trkpt lat="40.13776168993977" lon="8.779218745547318"><ele>339.66666666666663</ele><time>2026-04-26T13:21:50.895Z</time></trkpt><trkpt lat="40.13771912254759" lon="8.779416166409286"><ele>339.3333333333333</ele><time>2026-04-26T13:21:51.895Z</time></trkpt><trkpt lat="40.13767932471521" lon="8.779610761762763"><ele>339.0</ele><time>2026-04-26T13:21:52.895Z</time></trkpt><trkpt lat="40.13763720031974" lon="8.779806299220404"><ele>339.0</ele><time>2026-04-26T13:21:53.895Z</time></trkpt><trkpt lat="40.13759763049287" lon="8.779997196226155"><ele>339.0</ele><time>2026-04-26T13:21:54.895Z</time></trkpt><trkpt lat="40.13755670462328" lon="8.780190891986472"><ele>339.0</ele><time>2026-04-26T13:21:55.895Z</time></trkpt><trkpt lat="40.137516123484126" lon="8.780384359241584"><ele>339.3333333333333</ele><time>2026-04-26T13:21:56.895Z</time></trkpt><trkpt lat="40.137476101485426" lon="8.780582658393325"><ele>339.66666666666663</ele><time>2026-04-26T13:21:57.895Z</time></trkpt><trkpt lat="40.137434075068164" lon="8.780776879738243"><ele>340.0</ele><time>2026-04-26T13:21:58.895Z</time></trkpt><trkpt lat="40.137392760969774" lon="8.78097112162336"><ele>339.0</ele><time>2026-04-26T13:21:59.895Z</time></trkpt><trkpt lat="40.137353679716256" lon="8.781171879017506"><ele>338.0</ele><time>2026-04-26T13:22:00.895Z</time></trkpt><trkpt lat="40.13731333145136" lon="8.781369753093925"><ele>337.0</ele><time>2026-04-26T13:22:01.895Z</time></trkpt><trkpt lat="40.137273097593464" lon="8.781569064794036"><ele>337.0</ele><time>2026-04-26T13:22:02.895Z</time></trkpt><trkpt lat="40.13723135903781" lon="8.781764370967545"><ele>337.0</ele><time>2026-04-26T13:22:03.895Z</time></trkpt><trkpt lat="40.13718826357936" lon="8.781960782847097"><ele>337.0</ele><time>2026-04-26T13:22:04.896Z</time></trkpt><trkpt lat="40.1371456681639" lon="8.782157566687621"><ele>337.0</ele><time>2026-04-26T13:22:05.896Z</time></trkpt><trkpt lat="40.13710362944192" lon="8.782352796083728"><ele>337.0</ele><time>2026-04-26T13:22:06.896Z</time></trkpt><trkpt lat="40.13706084245684" lon="8.782552757678571"><ele>337.0</ele><time>2026-04-26T13:22:07.896Z</time></trkpt><trkpt lat="40.137016569238384" lon="8.78275367080949"><ele>337.3333333333333</ele><time>2026-04-26T13:22:08.896Z</time></trkpt><trkpt lat="40.13697188891449" lon="8.782950314427199"><ele>337.6666666666667</ele><time>2026-04-26T13:22:09.896Z</time></trkpt><trkpt lat="40.136929263578686" lon="8.783146237541352"><ele>338.0</ele><time>2026-04-26T13:22:10.896Z</time></trkpt><trkpt lat="40.13688576362067" lon="8.783339916338521"><ele>337.0</ele><time>2026-04-26T13:22:11.896Z</time></trkpt><trkpt lat="40.136842203057746" lon="8.783534824131042"><ele>336.0</ele><time>2026-04-26T13:22:12.896Z</time></trkpt><trkpt lat="40.136798689161765" lon="8.783734788188196"><ele>335.0</ele><time>2026-04-26T13:22:13.896Z</time></trkpt><trkpt lat="40.13675555504546" lon="8.78393384520545"><ele>335.0</ele><time>2026-04-26T13:22:14.896Z</time></trkpt><trkpt lat="40.136713356283" lon="8.78413239336151"><ele>335.0</ele><time>2026-04-26T13:22:15.896Z</time></trkpt><trkpt lat="40.13666964842807" lon="8.784332247496245"><ele>335.0</ele><time>2026-04-26T13:22:16.896Z</time></trkpt><trkpt lat="40.13662769478547" lon="8.784534892048093"><ele>335.0</ele><time>2026-04-26T13:22:17.896Z</time></trkpt><trkpt lat="40.13658533896714" lon="8.784736923800475"><ele>335.0</ele><time>2026-04-26T13:22:18.896Z</time></trkpt><trkpt lat="40.13654217948746" lon="8.784941306315952"><ele>335.0</ele><time>2026-04-26T13:22:19.896Z</time></trkpt><trkpt lat="40.13650099187882" lon="8.785146199423673"><ele>335.0</ele><time>2026-04-26T13:22:20.896Z</time></trkpt><trkpt lat="40.13645864241703" lon="8.785336640956599"><ele>335.0</ele><time>2026-04-26T13:22:21.896Z</time></trkpt><trkpt lat="40.13641461265136" lon="8.785523361075267"><ele>335.0</ele><time>2026-04-26T13:22:22.896Z</time></trkpt><trkpt lat="40.13637042052596" lon="8.785722594369718"><ele>335.0</ele><time>2026-04-26T13:22:23.896Z</time></trkpt><trkpt lat="40.1363230736397" lon="8.785911631444954"><ele>335.0</ele><time>2026-04-26T13:22:24.896Z</time></trkpt><trkpt lat="40.136283829293525" lon="8.78607354183617"><ele>335.0</ele><time>2026-04-26T13:22:25.896Z</time></trkpt><trkpt lat="40.13622595263868" lon="8.786182304893712"><ele>335.0</ele><time>2026-04-26T13:22:26.896Z</time></trkpt><trkpt lat="40.13616645989641" lon="8.786259071553"><ele>335.5</ele><time>2026-04-26T13:22:27.896Z</time></trkpt><trkpt lat="40.136158632203546" lon="8.786754185093141"><ele>336.0</ele><time>2026-04-26T13:22:28.896Z</time></trkpt><trkpt lat="40.13611191883341" lon="8.786951166764705"><ele>335.0</ele><time>2026-04-26T13:22:29.896Z</time></trkpt><trkpt lat="40.13606947851134" lon="8.787152080959787"><ele>334.0</ele><time>2026-04-26T13:22:30.896Z</time></trkpt><trkpt lat="40.13602707359746" lon="8.787354175108717"><ele>333.0</ele><time>2026-04-26T13:22:31.896Z</time></trkpt><trkpt lat="40.13598394705911" lon="8.78755402570418"><ele>333.0</ele><time>2026-04-26T13:22:32.896Z</time></trkpt><trkpt lat="40.13593717587799" lon="8.78775143355679"><ele>333.0</ele><time>2026-04-26T13:22:33.896Z</time></trkpt><trkpt lat="40.135897339764185" lon="8.787949444818087"><ele>333.0</ele><time>2026-04-26T13:22:34.896Z</time></trkpt><trkpt lat="40.13585429376603" lon="8.788147561465685"><ele>333.0</ele><time>2026-04-26T13:22:35.896Z</time></trkpt><trkpt lat="40.13581106491954" lon="8.78834335214531"><ele>333.0</ele><time>2026-04-26T13:22:36.896Z</time></trkpt><trkpt lat="40.135769028116385" lon="8.788538394151132"><ele>333.0</ele><time>2026-04-26T13:22:37.896Z</time></trkpt><trkpt lat="40.13572906304822" lon="8.788735999925997"><ele>332.6666666666667</ele><time>2026-04-26T13:22:38.896Z</time></trkpt><trkpt lat="40.135683251629295" lon="8.78893112945249"><ele>332.33333333333337</ele><time>2026-04-26T13:22:39.896Z</time></trkpt><trkpt lat="40.135642028006686" lon="8.78913305562488"><ele>332.0</ele><time>2026-04-26T13:22:40.896Z</time></trkpt><trkpt lat="40.13559980339972" lon="8.789332300409239"><ele>331.6666666666667</ele><time>2026-04-26T13:22:41.896Z</time></trkpt><trkpt lat="40.135556668219195" lon="8.789531053213057"><ele>331.3333333333333</ele><time>2026-04-26T13:22:42.896Z</time></trkpt><trkpt lat="40.1355147462907" lon="8.789729506743088"><ele>331.0</ele><time>2026-04-26T13:22:43.896Z</time></trkpt><trkpt lat="40.13547285199846" lon="8.789928318246064"><ele>331.0</ele><time>2026-04-26T13:22:44.896Z</time></trkpt><trkpt lat="40.135431528102366" lon="8.790126123049427"><ele>331.0</ele><time>2026-04-26T13:22:45.896Z</time></trkpt><trkpt lat="40.13538880921848" lon="8.790322835797458"><ele>331.0</ele><time>2026-04-26T13:22:46.896Z</time></trkpt><trkpt lat="40.13534773536326" lon="8.790520078536888"><ele>330.66666666666663</ele><time>2026-04-26T13:22:47.896Z</time></trkpt><trkpt lat="40.13530615713181" lon="8.790716846706617"><ele>330.3333333333333</ele><time>2026-04-26T13:22:48.896Z</time></trkpt><trkpt lat="40.13526265696661" lon="8.79091238141174"><ele>330.0</ele><time>2026-04-26T13:22:49.896Z</time></trkpt><trkpt lat="40.13522123073819" lon="8.791111798621548"><ele>329.6666666666667</ele><time>2026-04-26T13:22:50.896Z</time></trkpt><trkpt lat="40.13517816651613" lon="8.791308747826175"><ele>329.33333333333337</ele><time>2026-04-26T13:22:51.896Z</time></trkpt><trkpt lat="40.13514287406209" lon="8.791504946210766"><ele>329.0</ele><time>2026-04-26T13:22:52.896Z</time></trkpt><trkpt lat="40.135101108837915" lon="8.79169361612212"><ele>328.6666666666667</ele><time>2026-04-26T13:22:53.896Z</time></trkpt><trkpt lat="40.13505495845295" lon="8.791889247075591"><ele>328.3333333333333</ele><time>2026-04-26T13:22:54.895Z</time></trkpt><trkpt lat="40.13501662116521" lon="8.792083789818594"><ele>328.0</ele><time>2026-04-26T13:22:55.895Z</time></trkpt><trkpt lat="40.13497461415346" lon="8.79227650744835"><ele>328.0</ele><time>2026-04-26T13:22:56.894Z</time></trkpt><trkpt lat="40.13493136675996" lon="8.792468942195224"><ele>328.0</ele><time>2026-04-26T13:22:57.894Z</time></trkpt><trkpt lat="40.13488560310263" lon="8.792658794022325"><ele>328.0</ele><time>2026-04-26T13:22:58.894Z</time></trkpt><trkpt lat="40.13484780978617" lon="8.792845316111412"><ele>328.0</ele><time>2026-04-26T13:22:59.894Z</time></trkpt><trkpt lat="40.13480821850707" lon="8.793034872689686"><ele>328.0</ele><time>2026-04-26T13:23:00.893Z</time></trkpt><trkpt lat="40.13476541148999" lon="8.79322374886711"><ele>328.0</ele><time>2026-04-26T13:23:01.893Z</time></trkpt><trkpt lat="40.13472443021896" lon="8.793410056483834"><ele>328.0</ele><time>2026-04-26T13:23:02.893Z</time></trkpt><trkpt lat="40.1346833549461" lon="8.79359857662399"><ele>328.0</ele><time>2026-04-26T13:23:03.893Z</time></trkpt><trkpt lat="40.13464756616715" lon="8.793787743391702"><ele>328.0</ele><time>2026-04-26T13:23:04.892Z</time></trkpt><trkpt lat="40.1346078195815" lon="8.793975382087044"><ele>328.0</ele><time>2026-04-26T13:23:05.892Z</time></trkpt><trkpt lat="40.13456773183183" lon="8.794169709395716"><ele>327.75</ele><time>2026-04-26T13:23:06.892Z</time></trkpt><trkpt lat="40.134526970706844" lon="8.794357331896284"><ele>327.5</ele><time>2026-04-26T13:23:07.892Z</time></trkpt><trkpt lat="40.134486131251315" lon="8.794543248724889"><ele>327.25</ele><time>2026-04-26T13:23:08.892Z</time></trkpt><trkpt lat="40.1344466574396" lon="8.794728609225237"><ele>327.0</ele><time>2026-04-26T13:23:09.891Z</time></trkpt><trkpt lat="40.13440417698181" lon="8.794914751203477"><ele>327.0</ele><time>2026-04-26T13:23:10.891Z</time></trkpt><trkpt lat="40.13435884845465" lon="8.79510384279404"><ele>327.0</ele><time>2026-04-26T13:23:11.891Z</time></trkpt><trkpt lat="40.13431575220932" lon="8.79529209129548"><ele>327.0</ele><time>2026-04-26T13:23:12.891Z</time></trkpt><trkpt lat="40.13427694118375" lon="8.795478788856729"><ele>327.0</ele><time>2026-04-26T13:23:13.891Z</time></trkpt><trkpt lat="40.13424006528426" lon="8.79566460979189"><ele>327.0</ele><time>2026-04-26T13:23:14.891Z</time></trkpt><trkpt lat="40.13419609316434" lon="8.795857082269842"><ele>327.0</ele><time>2026-04-26T13:23:15.891Z</time></trkpt><trkpt lat="40.134157369096336" lon="8.796046278381365"><ele>327.25</ele><time>2026-04-26T13:23:16.891Z</time></trkpt><trkpt lat="40.13411690341632" lon="8.796230574400873"><ele>327.5</ele><time>2026-04-26T13:23:17.891Z</time></trkpt><trkpt lat="40.1340804416052" lon="8.796405407997263"><ele>327.75</ele><time>2026-04-26T13:23:18.89Z</time></trkpt><trkpt lat="40.134039367779714" lon="8.796584405172403"><ele>328.0</ele><time>2026-04-26T13:23:19.89Z</time></trkpt><trkpt lat="40.13399999685284" lon="8.796758687896661"><ele>328.0</ele><time>2026-04-26T13:23:20.89Z</time></trkpt><trkpt lat="40.13395815131865" lon="8.796935916985607"><ele>328.0</ele><time>2026-04-26T13:23:21.89Z</time></trkpt><trkpt lat="40.13392077264975" lon="8.797111209649497"><ele>328.0</ele><time>2026-04-26T13:23:22.89Z</time></trkpt><trkpt lat="40.13388471215477" lon="8.797283379157857"><ele>328.0</ele><time>2026-04-26T13:23:23.89Z</time></trkpt><trkpt lat="40.13384714857489" lon="8.797459244889435"><ele>328.0</ele><time>2026-04-26T13:23:24.89Z</time></trkpt><trkpt lat="40.13381008656537" lon="8.797638533927229"><ele>328.0</ele><time>2026-04-26T13:23:25.89Z</time></trkpt><trkpt lat="40.13376887530715" lon="8.797816706826529"><ele>328.0</ele><time>2026-04-26T13:23:26.89Z</time></trkpt><trkpt lat="40.13373218948663" lon="8.79799318045605"><ele>328.0</ele><time>2026-04-26T13:23:27.89Z</time></trkpt><trkpt lat="40.133695247234755" lon="8.798173994041283"><ele>328.25</ele><time>2026-04-26T13:23:28.89Z</time></trkpt><trkpt lat="40.1336550626169" lon="8.798352228478803"><ele>328.5</ele><time>2026-04-26T13:23:29.89Z</time></trkpt><trkpt lat="40.133614557165096" lon="8.798529380543792"><ele>328.75</ele><time>2026-04-26T13:23:30.89Z</time></trkpt><trkpt lat="40.13357725567479" lon="8.798710601935717"><ele>329.0</ele><time>2026-04-26T13:23:31.89Z</time></trkpt><trkpt lat="40.1335356324588" lon="8.798888073825106"><ele>329.0</ele><time>2026-04-26T13:23:32.89Z</time></trkpt><trkpt lat="40.13349315374682" lon="8.799072848767413"><ele>329.0</ele><time>2026-04-26T13:23:33.89Z</time></trkpt><trkpt lat="40.13345280467134" lon="8.79925671667992"><ele>329.0</ele><time>2026-04-26T13:23:34.89Z</time></trkpt><trkpt lat="40.13341302618641" lon="8.799443502224586"><ele>329.0</ele><time>2026-04-26T13:23:35.89Z</time></trkpt><trkpt lat="40.13337144683532" lon="8.79962754384911"><ele>329.0</ele><time>2026-04-26T13:23:36.89Z</time></trkpt><trkpt lat="40.133335351593885" lon="8.799810771929803"><ele>329.0</ele><time>2026-04-26T13:23:37.89Z</time></trkpt><trkpt lat="40.13329588347217" lon="8.799998316132383"><ele>329.0</ele><time>2026-04-26T13:23:38.887Z</time></trkpt><trkpt lat="40.133254967581564" lon="8.800190063615402"><ele>329.0</ele><time>2026-04-26T13:23:39.888Z</time></trkpt><trkpt lat="40.133211586809445" lon="8.800379275946659"><ele>328.5</ele><time>2026-04-26T13:23:40.888Z</time></trkpt><trkpt lat="40.13317421628936" lon="8.800565582881912"><ele>328.0</ele><time>2026-04-26T13:23:41.887Z</time></trkpt><trkpt lat="40.13313897812437" lon="8.800751076263767"><ele>327.5</ele><time>2026-04-26T13:23:42.887Z</time></trkpt><trkpt lat="40.13309675872185" lon="8.800939627574019"><ele>327.0</ele><time>2026-04-26T13:23:43.887Z</time></trkpt><trkpt lat="40.133056759362695" lon="8.801120394027738"><ele>327.0</ele><time>2026-04-26T13:23:44.887Z</time></trkpt><trkpt lat="40.13302145458946" lon="8.801289869127038"><ele>327.0</ele><time>2026-04-26T13:23:45.887Z</time></trkpt><trkpt lat="40.132984833580906" lon="8.801457412507299"><ele>327.0</ele><time>2026-04-26T13:23:46.887Z</time></trkpt><trkpt lat="40.132945625157674" lon="8.8016237921996"><ele>327.0</ele><time>2026-04-26T13:23:47.887Z</time></trkpt><trkpt lat="40.13290785405642" lon="8.80179830322296"><ele>327.0</ele><time>2026-04-26T13:23:48.887Z</time></trkpt><trkpt lat="40.13287083313615" lon="8.801975862187982"><ele>327.0</ele><time>2026-04-26T13:23:49.887Z</time></trkpt><trkpt lat="40.13282968373321" lon="8.802156526276343"><ele>327.0</ele><time>2026-04-26T13:23:50.887Z</time></trkpt><trkpt lat="40.132789182948684" lon="8.802333874866848"><ele>327.0</ele><time>2026-04-26T13:23:51.887Z</time></trkpt><trkpt lat="40.13275242154095" lon="8.80251250580195"><ele>327.25</ele><time>2026-04-26T13:23:52.887Z</time></trkpt><trkpt lat="40.13271431985358" lon="8.802684005759097"><ele>327.5</ele><time>2026-04-26T13:23:53.887Z</time></trkpt><trkpt lat="40.13267653792825" lon="8.80285199314633"><ele>327.75</ele><time>2026-04-26T13:23:54.887Z</time></trkpt><trkpt lat="40.132639279715065" lon="8.803023732373823"><ele>328.0</ele><time>2026-04-26T13:23:55.887Z</time></trkpt><trkpt lat="40.1326035820103" lon="8.80319429466462"><ele>328.0</ele><time>2026-04-26T13:23:56.887Z</time></trkpt><trkpt lat="40.13256265790665" lon="8.803361972162483"><ele>328.0</ele><time>2026-04-26T13:23:57.887Z</time></trkpt><trkpt lat="40.13252528047643" lon="8.80353255102057"><ele>328.0</ele><time>2026-04-26T13:23:58.887Z</time></trkpt><trkpt lat="40.132486747861684" lon="8.803692679790172"><ele>328.0</ele><time>2026-04-26T13:23:59.887Z</time></trkpt><trkpt lat="40.13245440330894" lon="8.803856122357772"><ele>327.5</ele><time>2026-04-26T13:24:00.887Z</time></trkpt><trkpt lat="40.13241975107578" lon="8.80401623334808"><ele>327.0</ele><time>2026-04-26T13:24:01.887Z</time></trkpt><trkpt lat="40.13238548741614" lon="8.804174712324789"><ele>326.5</ele><time>2026-04-26T13:24:02.887Z</time></trkpt><trkpt lat="40.13234941518468" lon="8.80433328942777"><ele>326.0</ele><time>2026-04-26T13:24:03.887Z</time></trkpt><trkpt lat="40.132305263503724" lon="8.804488027202595"><ele>325.5</ele><time>2026-04-26T13:24:04.887Z</time></trkpt><trkpt lat="40.13225600115014" lon="8.804638991317956"><ele>325.0</ele><time>2026-04-26T13:24:05.887Z</time></trkpt><trkpt lat="40.13220089192645" lon="8.804783585239258"><ele>324.5</ele><time>2026-04-26T13:24:06.887Z</time></trkpt><trkpt lat="40.1321456581317" lon="8.804925426544992"><ele>324.0</ele><time>2026-04-26T13:24:07.887Z</time></trkpt><trkpt lat="40.132088815678756" lon="8.805057568425466"><ele>324.0</ele><time>2026-04-26T13:24:08.887Z</time></trkpt><trkpt lat="40.132025785878284" lon="8.805193553876824"><ele>324.0</ele><time>2026-04-26T13:24:09.887Z</time></trkpt><trkpt lat="40.13196551253725" lon="8.805312071306913"><ele>324.0</ele><time>2026-04-26T13:24:10.887Z</time></trkpt><trkpt lat="40.13190569521395" lon="8.805420250618047"><ele>324.0</ele><time>2026-04-26T13:24:11.887Z</time></trkpt><trkpt lat="40.131842354086295" lon="8.805506732795756"><ele>324.0</ele><time>2026-04-26T13:24:12.887Z</time></trkpt><trkpt lat="40.13177176841257" lon="8.805575480061822"><ele>324.0</ele><time>2026-04-26T13:24:13.887Z</time></trkpt><trkpt lat="40.131689358857685" lon="8.805626083696962"><ele>324.0</ele><time>2026-04-26T13:24:14.887Z</time></trkpt><trkpt lat="40.13160002341036" lon="8.805653644524375"><ele>324.0</ele><time>2026-04-26T13:24:15.887Z</time></trkpt><trkpt lat="40.13149781754283" lon="8.805661175336132"><ele>324.0</ele><time>2026-04-26T13:24:16.887Z</time></trkpt><trkpt lat="40.131401722596976" lon="8.805637605114631"><ele>324.0</ele><time>2026-04-26T13:24:17.887Z</time></trkpt><trkpt lat="40.131291195185476" lon="8.805599800098873"><ele>323.75</ele><time>2026-04-26T13:24:18.887Z</time></trkpt><trkpt lat="40.13118574608194" lon="8.805560049015101"><ele>323.5</ele><time>2026-04-26T13:24:19.887Z</time></trkpt><trkpt lat="40.13107439125885" lon="8.805513483100988"><ele>323.25</ele><time>2026-04-26T13:24:20.887Z</time></trkpt><trkpt lat="40.13095243164196" lon="8.805472066297607"><ele>323.0</ele><time>2026-04-26T13:24:21.887Z</time></trkpt><trkpt lat="40.130830378368465" lon="8.80542646506594"><ele>322.5</ele><time>2026-04-26T13:24:22.887Z</time></trkpt><trkpt lat="40.130705538574446" lon="8.805381935239655"><ele>322.0</ele><time>2026-04-26T13:24:23.887Z</time></trkpt><trkpt lat="40.13057593140714" lon="8.805331173372647"><ele>321.5</ele><time>2026-04-26T13:24:24.887Z</time></trkpt><trkpt lat="40.13044468806149" lon="8.80528153931588"><ele>321.0</ele><time>2026-04-26T13:24:25.887Z</time></trkpt><trkpt lat="40.13031189442565" lon="8.805233053253625"><ele>321.0</ele><time>2026-04-26T13:24:26.887Z</time></trkpt><trkpt lat="40.130175336735455" lon="8.805184055053477"><ele>321.0</ele><time>2026-04-26T13:24:27.887Z</time></trkpt><trkpt lat="40.13004322296747" lon="8.8051362350102"><ele>321.0</ele><time>2026-04-26T13:24:28.887Z</time></trkpt><trkpt lat="40.129909427208" lon="8.805086545281883"><ele>321.0</ele><time>2026-04-26T13:24:29.887Z</time></trkpt><trkpt lat="40.12977294626444" lon="8.805035817617128"><ele>320.75</ele><time>2026-04-26T13:24:30.887Z</time></trkpt><trkpt lat="40.12963671489249" lon="8.804984237134379"><ele>320.5</ele><time>2026-04-26T13:24:31.887Z</time></trkpt><trkpt lat="40.12950190411937" lon="8.804929379270932"><ele>320.25</ele><time>2026-04-26T13:24:32.887Z</time></trkpt><trkpt lat="40.12937026045728" lon="8.804865023123376"><ele>320.0</ele><time>2026-04-26T13:24:33.887Z</time></trkpt><trkpt lat="40.12923630530543" lon="8.804790671585383"><ele>320.0</ele><time>2026-04-26T13:24:34.887Z</time></trkpt><trkpt lat="40.129107414617756" lon="8.804708449234754"><ele>320.0</ele><time>2026-04-26T13:24:35.887Z</time></trkpt><trkpt lat="40.128977745000064" lon="8.804621426143221"><ele>320.0</ele><time>2026-04-26T13:24:36.887Z</time></trkpt><trkpt lat="40.12884765715367" lon="8.804532279461014"><ele>320.0</ele><time>2026-04-26T13:24:37.887Z</time></trkpt><trkpt lat="40.12871931877117" lon="8.80444467649703"><ele>320.25</ele><time>2026-04-26T13:24:38.887Z</time></trkpt><trkpt lat="40.12859105432345" lon="8.80435278516673"><ele>320.5</ele><time>2026-04-26T13:24:39.887Z</time></trkpt><trkpt lat="40.12846382376186" lon="8.804263782480733"><ele>320.75</ele><time>2026-04-26T13:24:40.887Z</time></trkpt><trkpt lat="40.12833112167069" lon="8.804171532571957"><ele>321.0</ele><time>2026-04-26T13:24:41.887Z</time></trkpt><trkpt lat="40.12819945615728" lon="8.804075308747995"><ele>321.0</ele><time>2026-04-26T13:24:42.887Z</time></trkpt><trkpt lat="40.12807109439233" lon="8.803978655380373"><ele>321.0</ele><time>2026-04-26T13:24:43.887Z</time></trkpt><trkpt lat="40.12793909521835" lon="8.803881346915807"><ele>321.0</ele><time>2026-04-26T13:24:44.887Z</time></trkpt><trkpt lat="40.12780672029491" lon="8.803780090350413"><ele>321.0</ele><time>2026-04-26T13:24:45.887Z</time></trkpt><trkpt lat="40.12767077826251" lon="8.803679269486219"><ele>321.0</ele><time>2026-04-26T13:24:46.887Z</time></trkpt><trkpt lat="40.127538811472704" lon="8.803580357486538"><ele>321.0</ele><time>2026-04-26T13:24:47.887Z</time></trkpt><trkpt lat="40.127404271540144" lon="8.803475208767155"><ele>320.6666666666667</ele><time>2026-04-26T13:24:48.887Z</time></trkpt><trkpt lat="40.127275829367726" lon="8.803373934497667"><ele>320.33333333333337</ele><time>2026-04-26T13:24:49.887Z</time></trkpt><trkpt lat="40.12713881229062" lon="8.803271907993084"><ele>320.0</ele><time>2026-04-26T13:24:50.887Z</time></trkpt><trkpt lat="40.12700553499551" lon="8.803171911395737"><ele>320.0</ele><time>2026-04-26T13:24:51.887Z</time></trkpt><trkpt lat="40.12686798820953" lon="8.803065848694063"><ele>320.0</ele><time>2026-04-26T13:24:52.887Z</time></trkpt><trkpt lat="40.12673478845983" lon="8.802965742891478"><ele>320.0</ele><time>2026-04-26T13:24:53.887Z</time></trkpt><trkpt lat="40.126595088002425" lon="8.802863016033733"><ele>319.6666666666667</ele><time>2026-04-26T13:24:54.887Z</time></trkpt><trkpt lat="40.126458686289915" lon="8.802757432011498"><ele>319.3333333333333</ele><time>2026-04-26T13:24:55.887Z</time></trkpt><trkpt lat="40.12631808225554" lon="8.802652885600327"><ele>319.0</ele><time>2026-04-26T13:24:56.887Z</time></trkpt><trkpt lat="40.1261847104975" lon="8.802551673818055"><ele>318.3333333333333</ele><time>2026-04-26T13:24:57.887Z</time></trkpt><trkpt lat="40.126044490768265" lon="8.802445092882861"><ele>317.6666666666667</ele><time>2026-04-26T13:24:58.887Z</time></trkpt><trkpt lat="40.125897105369575" lon="8.80233693364489"><ele>317.0</ele><time>2026-04-26T13:24:59.887Z</time></trkpt><trkpt lat="40.1257532714888" lon="8.802233853298787"><ele>317.0</ele><time>2026-04-26T13:25:00.887Z</time></trkpt><trkpt lat="40.12561837337277" lon="8.802133362392343"><ele>317.0</ele><time>2026-04-26T13:25:01.887Z</time></trkpt><trkpt lat="40.12548195648605" lon="8.802029383669671"><ele>317.0</ele><time>2026-04-26T13:25:02.887Z</time></trkpt><trkpt lat="40.12534078123309" lon="8.801920318563099"><ele>317.0</ele><time>2026-04-26T13:25:03.887Z</time></trkpt><trkpt lat="40.12519909550354" lon="8.80180537118906"><ele>317.0</ele><time>2026-04-26T13:25:04.887Z</time></trkpt><trkpt lat="40.12505718180714" lon="8.80169998396433"><ele>317.0</ele><time>2026-04-26T13:25:05.887Z</time></trkpt><trkpt lat="40.12490945157447" lon="8.801582242511444"><ele>317.0</ele><time>2026-04-26T13:25:06.887Z</time></trkpt><trkpt lat="40.12476233300521" lon="8.801476132960948"><ele>317.0</ele><time>2026-04-26T13:25:07.887Z</time></trkpt><trkpt lat="40.124611214234115" lon="8.801365884296239"><ele>317.0</ele><time>2026-04-26T13:25:08.887Z</time></trkpt><trkpt lat="40.124463848687526" lon="8.801254042012044"><ele>317.0</ele><time>2026-04-26T13:25:09.887Z</time></trkpt><trkpt lat="40.124317188668776" lon="8.801142338964802"><ele>317.0</ele><time>2026-04-26T13:25:10.887Z</time></trkpt><trkpt lat="40.124166263006195" lon="8.801030692336724"><ele>317.0</ele><time>2026-04-26T13:25:11.887Z</time></trkpt><trkpt lat="40.12401920805847" lon="8.800915460383402"><ele>316.33333333333337</ele><time>2026-04-26T13:25:12.887Z</time></trkpt><trkpt lat="40.123870375729155" lon="8.800800251212465"><ele>315.6666666666667</ele><time>2026-04-26T13:25:13.887Z</time></trkpt><trkpt lat="40.123722428900884" lon="8.800687494751516"><ele>315.0</ele><time>2026-04-26T13:25:14.887Z</time></trkpt><trkpt lat="40.12357328181048" lon="8.800572441989521"><ele>315.0</ele><time>2026-04-26T13:25:15.887Z</time></trkpt><trkpt lat="40.12342235535528" lon="8.800462256775946"><ele>315.0</ele><time>2026-04-26T13:25:16.887Z</time></trkpt><trkpt lat="40.123272104652024" lon="8.800345127097858"><ele>315.0</ele><time>2026-04-26T13:25:17.887Z</time></trkpt><trkpt lat="40.123118752983686" lon="8.800231928829493"><ele>315.3333333333333</ele><time>2026-04-26T13:25:18.887Z</time></trkpt><trkpt lat="40.122969976358775" lon="8.800112570611413"><ele>315.66666666666663</ele><time>2026-04-26T13:25:19.887Z</time></trkpt><trkpt lat="40.12281714764381" lon="8.799995054652998"><ele>316.0</ele><time>2026-04-26T13:25:20.887Z</time></trkpt><trkpt lat="40.1226610753094" lon="8.799872480937418"><ele>316.0</ele><time>2026-04-26T13:25:21.887Z</time></trkpt><trkpt lat="40.12250638168435" lon="8.799756846991997"><ele>316.0</ele><time>2026-04-26T13:25:22.887Z</time></trkpt><trkpt lat="40.12234758316374" lon="8.79964213497703"><ele>316.0</ele><time>2026-04-26T13:25:23.887Z</time></trkpt><trkpt lat="40.12218817348318" lon="8.799524912103946"><ele>316.0</ele><time>2026-04-26T13:25:24.887Z</time></trkpt><trkpt lat="40.12202594809605" lon="8.799407289985227"><ele>316.0</ele><time>2026-04-26T13:25:25.887Z</time></trkpt><trkpt lat="40.12187106829873" lon="8.79928866010839"><ele>316.0</ele><time>2026-04-26T13:25:26.887Z</time></trkpt><trkpt lat="40.121716647661245" lon="8.799166886491394"><ele>315.3333333333333</ele><time>2026-04-26T13:25:27.887Z</time></trkpt><trkpt lat="40.12156455101458" lon="8.799048251307141"><ele>314.6666666666667</ele><time>2026-04-26T13:25:28.887Z</time></trkpt><trkpt lat="40.12141412274862" lon="8.798929235127497"><ele>314.0</ele><time>2026-04-26T13:25:29.887Z</time></trkpt><trkpt lat="40.12126591377719" lon="8.798810195696268"><ele>314.0</ele><time>2026-04-26T13:25:30.887Z</time></trkpt><trkpt lat="40.12111564520522" lon="8.7986900566873"><ele>314.0</ele><time>2026-04-26T13:25:31.887Z</time></trkpt><trkpt lat="40.120959487778016" lon="8.798573117689365"><ele>314.0</ele><time>2026-04-26T13:25:32.887Z</time></trkpt><trkpt lat="40.12080387268339" lon="8.798460280940086"><ele>314.0</ele><time>2026-04-26T13:25:33.887Z</time></trkpt><trkpt lat="40.12064701712714" lon="8.79834712840466"><ele>314.0</ele><time>2026-04-26T13:25:34.887Z</time></trkpt><trkpt lat="40.12048688347624" lon="8.798237444604707"><ele>314.0</ele><time>2026-04-26T13:25:35.887Z</time></trkpt><trkpt lat="40.12032648690497" lon="8.798130778085188"><ele>314.0</ele><time>2026-04-26T13:25:36.887Z</time></trkpt><trkpt lat="40.12017108596292" lon="8.798030281939258"><ele>314.0</ele><time>2026-04-26T13:25:37.887Z</time></trkpt><trkpt lat="40.1200049608532" lon="8.797934591013274"><ele>314.0</ele><time>2026-04-26T13:25:38.887Z</time></trkpt><trkpt lat="40.11983598849655" lon="8.797846251781989"><ele>313.6666666666667</ele><time>2026-04-26T13:25:39.887Z</time></trkpt><trkpt lat="40.119662911699976" lon="8.797756969863789"><ele>313.3333333333333</ele><time>2026-04-26T13:25:40.887Z</time></trkpt><trkpt lat="40.11949134030455" lon="8.797670647016965"><ele>313.0</ele><time>2026-04-26T13:25:41.887Z</time></trkpt><trkpt lat="40.11932123780242" lon="8.797582783742346"><ele>313.0</ele><time>2026-04-26T13:25:42.887Z</time></trkpt><trkpt lat="40.11915516534926" lon="8.797491229075398"><ele>313.0</ele><time>2026-04-26T13:25:43.885Z</time></trkpt><trkpt lat="40.11898375248435" lon="8.79740384988527"><ele>313.0</ele><time>2026-04-26T13:25:44.886Z</time></trkpt><trkpt lat="40.11881206756778" lon="8.797315867292454"><ele>312.3333333333333</ele><time>2026-04-26T13:25:45.886Z</time></trkpt><trkpt lat="40.11864133524505" lon="8.79722956745526"><ele>311.6666666666667</ele><time>2026-04-26T13:25:46.886Z</time></trkpt><trkpt lat="40.118474201925274" lon="8.797142968263929"><ele>311.0</ele><time>2026-04-26T13:25:47.885Z</time></trkpt><trkpt lat="40.11830403527246" lon="8.797060235504205"><ele>310.6666666666667</ele><time>2026-04-26T13:25:48.885Z</time></trkpt><trkpt lat="40.118136787043596" lon="8.79698034966785"><ele>310.3333333333333</ele><time>2026-04-26T13:25:49.885Z</time></trkpt><trkpt lat="40.117969383162155" lon="8.796902421679869"><ele>310.0</ele><time>2026-04-26T13:25:50.885Z</time></trkpt><trkpt lat="40.11779776909137" lon="8.796826649560971"><ele>310.0</ele><time>2026-04-26T13:25:51.885Z</time></trkpt><trkpt lat="40.11762605558893" lon="8.796747865211787"><ele>310.0</ele><time>2026-04-26T13:25:52.885Z</time></trkpt><trkpt lat="40.11745582729382" lon="8.796661566915324"><ele>310.0</ele><time>2026-04-26T13:25:53.885Z</time></trkpt><trkpt lat="40.11728445271486" lon="8.796582840135505"><ele>309.66666666666663</ele><time>2026-04-26T13:25:54.885Z</time></trkpt><trkpt lat="40.11711361442817" lon="8.796500209900497"><ele>309.3333333333333</ele><time>2026-04-26T13:25:55.885Z</time></trkpt><trkpt lat="40.11694122605508" lon="8.796415086041074"><ele>309.0</ele><time>2026-04-26T13:25:56.885Z</time></trkpt><trkpt lat="40.116772559446666" lon="8.796328917643901"><ele>309.0</ele><time>2026-04-26T13:25:57.885Z</time></trkpt><trkpt lat="40.116605703318875" lon="8.796238332735806"><ele>309.0</ele><time>2026-04-26T13:25:58.885Z</time></trkpt><trkpt lat="40.11643698579993" lon="8.796147858037044"><ele>309.0</ele><time>2026-04-26T13:25:59.885Z</time></trkpt><trkpt lat="40.116265783166476" lon="8.796066480843983"><ele>309.0</ele><time>2026-04-26T13:26:00.885Z</time></trkpt><trkpt lat="40.11609385262341" lon="8.795978768866107"><ele>309.0</ele><time>2026-04-26T13:26:01.885Z</time></trkpt><trkpt lat="40.11592483136272" lon="8.795889285380259"><ele>309.0</ele><time>2026-04-26T13:26:02.885Z</time></trkpt><trkpt lat="40.11575766271433" lon="8.795799214728723"><ele>309.0</ele><time>2026-04-26T13:26:03.885Z</time></trkpt><trkpt lat="40.115588897204404" lon="8.795711483088942"><ele>309.0</ele><time>2026-04-26T13:26:04.885Z</time></trkpt><trkpt lat="40.11542048459314" lon="8.795625995319808"><ele>309.0</ele><time>2026-04-26T13:26:05.885Z</time></trkpt><trkpt lat="40.1152506815774" lon="8.79554489704588"><ele>309.0</ele><time>2026-04-26T13:26:06.885Z</time></trkpt><trkpt lat="40.11507899188749" lon="8.79546173491719"><ele>309.0</ele><time>2026-04-26T13:26:07.885Z</time></trkpt><trkpt lat="40.11490927174692" lon="8.7953802154447"><ele>309.0</ele><time>2026-04-26T13:26:08.885Z</time></trkpt><trkpt lat="40.11473815520214" lon="8.79529540742274"><ele>309.3333333333333</ele><time>2026-04-26T13:26:09.885Z</time></trkpt><trkpt lat="40.11457026884614" lon="8.795205660399102"><ele>309.66666666666663</ele><time>2026-04-26T13:26:10.885Z</time></trkpt><trkpt lat="40.11440128640357" lon="8.795115434181811"><ele>310.0</ele><time>2026-04-26T13:26:11.885Z</time></trkpt><trkpt lat="40.114229038018564" lon="8.795026269008282"><ele>308.66666666666663</ele><time>2026-04-26T13:26:12.885Z</time></trkpt><trkpt lat="40.11405597267828" lon="8.794938111129623"><ele>307.3333333333333</ele><time>2026-04-26T13:26:13.885Z</time></trkpt><trkpt lat="40.113887173626225" lon="8.794846218461338"><ele>306.0</ele><time>2026-04-26T13:26:14.885Z</time></trkpt><trkpt lat="40.1137174029864" lon="8.794756525401668"><ele>306.0</ele><time>2026-04-26T13:26:15.885Z</time></trkpt><trkpt lat="40.11355378637753" lon="8.79467187348192"><ele>306.0</ele><time>2026-04-26T13:26:16.885Z</time></trkpt><trkpt lat="40.11339171348478" lon="8.794588544224334"><ele>306.0</ele><time>2026-04-26T13:26:17.885Z</time></trkpt><trkpt lat="40.1132250786306" lon="8.79450708191771"><ele>304.6666666666667</ele><time>2026-04-26T13:26:18.885Z</time></trkpt><trkpt lat="40.113055413530326" lon="8.794425478293396"><ele>303.33333333333337</ele><time>2026-04-26T13:26:19.885Z</time></trkpt><trkpt lat="40.112887999336564" lon="8.794344544332146"><ele>302.0</ele><time>2026-04-26T13:26:20.885Z</time></trkpt><trkpt lat="40.112722499501125" lon="8.794257455008717"><ele>301.33333333333337</ele><time>2026-04-26T13:26:21.885Z</time></trkpt><trkpt lat="40.112554276599695" lon="8.794172946899701"><ele>300.6666666666667</ele><time>2026-04-26T13:26:22.885Z</time></trkpt><trkpt lat="40.11238684564888" lon="8.794085798581929"><ele>300.0</ele><time>2026-04-26T13:26:23.886Z</time></trkpt><trkpt lat="40.1122209629018" lon="8.793997924354473"><ele>299.3333333333333</ele><time>2026-04-26T13:26:24.886Z</time></trkpt><trkpt lat="40.11205813584694" lon="8.793911459567406"><ele>298.66666666666663</ele><time>2026-04-26T13:26:25.886Z</time></trkpt><trkpt lat="40.11188839760213" lon="8.793827579950966"><ele>298.0</ele><time>2026-04-26T13:26:26.886Z</time></trkpt><trkpt lat="40.11171849956192" lon="8.793747077738601"><ele>298.0</ele><time>2026-04-26T13:26:27.886Z</time></trkpt><trkpt lat="40.111549360492866" lon="8.793667014277371"><ele>298.0</ele><time>2026-04-26T13:26:28.886Z</time></trkpt><trkpt lat="40.1113805489368" lon="8.793581256078387"><ele>298.0</ele><time>2026-04-26T13:26:29.886Z</time></trkpt><trkpt lat="40.11121366069782" lon="8.79349696252676"><ele>298.0</ele><time>2026-04-26T13:26:30.886Z</time></trkpt><trkpt lat="40.111048041573426" lon="8.793410903135124"><ele>298.0</ele><time>2026-04-26T13:26:31.886Z</time></trkpt><trkpt lat="40.11088220632434" lon="8.793325464769332"><ele>298.0</ele><time>2026-04-26T13:26:32.886Z</time></trkpt><trkpt lat="40.11071680984062" lon="8.793237792983621"><ele>297.0</ele><time>2026-04-26T13:26:33.886Z</time></trkpt><trkpt lat="40.11055540686302" lon="8.79315236891287"><ele>296.0</ele><time>2026-04-26T13:26:34.886Z</time></trkpt><trkpt lat="40.11039149949611" lon="8.79306737979334"><ele>295.0</ele><time>2026-04-26T13:26:35.886Z</time></trkpt><trkpt lat="40.11022919083748" lon="8.792984079642379"><ele>295.0</ele><time>2026-04-26T13:26:36.886Z</time></trkpt><trkpt lat="40.11006870924783" lon="8.792895675622697"><ele>295.0</ele><time>2026-04-26T13:26:37.886Z</time></trkpt><trkpt lat="40.10991315214024" lon="8.792808976942055"><ele>295.0</ele><time>2026-04-26T13:26:38.886Z</time></trkpt><trkpt lat="40.10975872363245" lon="8.79272605417696"><ele>295.3333333333333</ele><time>2026-04-26T13:26:39.886Z</time></trkpt><trkpt lat="40.10959993700753" lon="8.792647052313512"><ele>295.6666666666667</ele><time>2026-04-26T13:26:40.886Z</time></trkpt><trkpt lat="40.109438067584186" lon="8.79257331245941"><ele>296.0</ele><time>2026-04-26T13:26:41.886Z</time></trkpt><trkpt lat="40.109275568779" lon="8.792500601784173"><ele>296.0</ele><time>2026-04-26T13:26:42.886Z</time></trkpt><trkpt lat="40.10911476458591" lon="8.792415460917818"><ele>296.0</ele><time>2026-04-26T13:26:43.886Z</time></trkpt><trkpt lat="40.108955917152464" lon="8.792328994834412"><ele>296.0</ele><time>2026-04-26T13:26:44.886Z</time></trkpt><trkpt lat="40.10879513937295" lon="8.792246062564043"><ele>294.33333333333337</ele><time>2026-04-26T13:26:45.886Z</time></trkpt><trkpt lat="40.10863533137528" lon="8.792159588485857"><ele>292.6666666666667</ele><time>2026-04-26T13:26:46.886Z</time></trkpt><trkpt lat="40.10847207271811" lon="8.79206878085739"><ele>291.0</ele><time>2026-04-26T13:26:47.886Z</time></trkpt><trkpt lat="40.10831339908283" lon="8.791967620819573"><ele>289.3333333333333</ele><time>2026-04-26T13:26:48.886Z</time></trkpt><trkpt lat="40.108158150779225" lon="8.791858404400191"><ele>287.66666666666663</ele><time>2026-04-26T13:26:49.886Z</time></trkpt><trkpt lat="40.10800485496366" lon="8.791741784581006"><ele>286.0</ele><time>2026-04-26T13:26:50.886Z</time></trkpt><trkpt lat="40.10785260830043" lon="8.791625675694986"><ele>286.0</ele><time>2026-04-26T13:26:51.886Z</time></trkpt><trkpt lat="40.107706257168296" lon="8.791497158034506"><ele>286.0</ele><time>2026-04-26T13:26:52.886Z</time></trkpt><trkpt lat="40.107563805399245" lon="8.791362328053347"><ele>286.0</ele><time>2026-04-26T13:26:53.886Z</time></trkpt><trkpt lat="40.107422300189135" lon="8.791219395421136"><ele>285.66666666666663</ele><time>2026-04-26T13:26:54.886Z</time></trkpt><trkpt lat="40.10728417730353" lon="8.791070840652683"><ele>285.3333333333333</ele><time>2026-04-26T13:26:55.886Z</time></trkpt><trkpt lat="40.107145412501616" lon="8.790915624740999"><ele>285.0</ele><time>2026-04-26T13:26:56.886Z</time></trkpt><trkpt lat="40.10700996113791" lon="8.790756200475174"><ele>285.0</ele><time>2026-04-26T13:26:57.886Z</time></trkpt><trkpt lat="40.10687731336288" lon="8.790599418430515"><ele>285.0</ele><time>2026-04-26T13:26:58.886Z</time></trkpt><trkpt lat="40.10674353000979" lon="8.790447622045265"><ele>285.0</ele><time>2026-04-26T13:26:59.886Z</time></trkpt><trkpt lat="40.10660906365035" lon="8.790296833884497"><ele>284.6666666666667</ele><time>2026-04-26T13:27:00.886Z</time></trkpt><trkpt lat="40.106472968082194" lon="8.790149135596012"><ele>284.33333333333337</ele><time>2026-04-26T13:27:01.886Z</time></trkpt><trkpt lat="40.106335209992224" lon="8.789993538698825"><ele>284.0</ele><time>2026-04-26T13:27:02.886Z</time></trkpt><trkpt lat="40.10620434776739" lon="8.789840622582227"><ele>284.0</ele><time>2026-04-26T13:27:03.886Z</time></trkpt><trkpt lat="40.10606542948429" lon="8.789692199433297"><ele>284.0</ele><time>2026-04-26T13:27:04.886Z</time></trkpt><trkpt lat="40.105923028174296" lon="8.789544100692387"><ele>284.0</ele><time>2026-04-26T13:27:05.886Z</time></trkpt><trkpt lat="40.10577824211622" lon="8.789391869764366"><ele>284.0</ele><time>2026-04-26T13:27:06.886Z</time></trkpt><trkpt lat="40.105632693192504" lon="8.789240661387606"><ele>284.0</ele><time>2026-04-26T13:27:07.886Z</time></trkpt><trkpt lat="40.10549229052277" lon="8.789083131470008"><ele>284.0</ele><time>2026-04-26T13:27:08.886Z</time></trkpt><trkpt lat="40.10534806921859" lon="8.788923712472545"><ele>284.0</ele><time>2026-04-26T13:27:09.886Z</time></trkpt><trkpt lat="40.10520146680385" lon="8.788767506681486"><ele>284.0</ele><time>2026-04-26T13:27:10.886Z</time></trkpt><trkpt lat="40.10505881642761" lon="8.788606742580827"><ele>284.0</ele><time>2026-04-26T13:27:11.886Z</time></trkpt><trkpt lat="40.104915149299124" lon="8.788446399674964"><ele>283.6666666666667</ele><time>2026-04-26T13:27:12.886Z</time></trkpt><trkpt lat="40.104772284944005" lon="8.788291075369646"><ele>283.3333333333333</ele><time>2026-04-26T13:27:13.886Z</time></trkpt><trkpt lat="40.10463045245814" lon="8.788136576589643"><ele>283.0</ele><time>2026-04-26T13:27:14.886Z</time></trkpt><trkpt lat="40.104486436278485" lon="8.787982453154267"><ele>283.0</ele><time>2026-04-26T13:27:15.886Z</time></trkpt><trkpt lat="40.10434243128378" lon="8.78782630222145"><ele>283.0</ele><time>2026-04-26T13:27:16.886Z</time></trkpt><trkpt lat="40.10419942636966" lon="8.78767510625496"><ele>283.0</ele><time>2026-04-26T13:27:17.886Z</time></trkpt><trkpt lat="40.10405950036143" lon="8.78752295784435"><ele>281.66666666666663</ele><time>2026-04-26T13:27:18.886Z</time></trkpt><trkpt lat="40.10390660785285" lon="8.787372096149596"><ele>280.3333333333333</ele><time>2026-04-26T13:27:19.886Z</time></trkpt><trkpt lat="40.10377106541596" lon="8.787214736279406"><ele>279.0</ele><time>2026-04-26T13:27:20.886Z</time></trkpt><trkpt lat="40.1036213002365" lon="8.78705734767624"><ele>279.0</ele><time>2026-04-26T13:27:21.886Z</time></trkpt><trkpt lat="40.10346994547902" lon="8.786905059154819"><ele>279.0</ele><time>2026-04-26T13:27:22.886Z</time></trkpt><trkpt lat="40.1033447623974" lon="8.78675328212219"><ele>279.0</ele><time>2026-04-26T13:27:23.886Z</time></trkpt><trkpt lat="40.103207733784075" lon="8.786604259623292"><ele>279.3333333333333</ele><time>2026-04-26T13:27:24.886Z</time></trkpt><trkpt lat="40.10306489171383" lon="8.786455500017295"><ele>279.66666666666663</ele><time>2026-04-26T13:27:25.886Z</time></trkpt><trkpt lat="40.10292267658843" lon="8.78630459914091"><ele>280.0</ele><time>2026-04-26T13:27:26.886Z</time></trkpt><trkpt lat="40.10277753061753" lon="8.786148628019552"><ele>280.3333333333333</ele><time>2026-04-26T13:27:27.886Z</time></trkpt><trkpt lat="40.102635419503855" lon="8.78599569839781"><ele>280.6666666666667</ele><time>2026-04-26T13:27:28.886Z</time></trkpt><trkpt lat="40.10249440182392" lon="8.785840099433065"><ele>281.0</ele><time>2026-04-26T13:27:29.886Z</time></trkpt><trkpt lat="40.10235466932138" lon="8.78568352969819"><ele>280.33333333333337</ele><time>2026-04-26T13:27:30.886Z</time></trkpt><trkpt lat="40.10221895520096" lon="8.785523735745432"><ele>279.6666666666667</ele><time>2026-04-26T13:27:31.886Z</time></trkpt><trkpt lat="40.102091286906436" lon="8.785360299311467"><ele>279.0</ele><time>2026-04-26T13:27:32.886Z</time></trkpt><trkpt lat="40.101961968256894" lon="8.785197615299944"><ele>279.6666666666667</ele><time>2026-04-26T13:27:33.886Z</time></trkpt><trkpt lat="40.10183952140078" lon="8.785027439773499"><ele>280.33333333333337</ele><time>2026-04-26T13:27:34.886Z</time></trkpt><trkpt lat="40.10172572443023" lon="8.784850719222527"><ele>281.0</ele><time>2026-04-26T13:27:35.886Z</time></trkpt><trkpt lat="40.10161340835897" lon="8.784674063817294"><ele>280.0</ele><time>2026-04-26T13:27:36.886Z</time></trkpt><trkpt lat="40.10150614304611" lon="8.78449505690564"><ele>279.0</ele><time>2026-04-26T13:27:37.886Z</time></trkpt><trkpt lat="40.10139489006318" lon="8.784315380077969"><ele>278.0</ele><time>2026-04-26T13:27:38.886Z</time></trkpt><trkpt lat="40.10128596020943" lon="8.784137389156625"><ele>277.6666666666667</ele><time>2026-04-26T13:27:39.886Z</time></trkpt><trkpt lat="40.10118013012158" lon="8.783961611687735"><ele>277.3333333333333</ele><time>2026-04-26T13:27:40.886Z</time></trkpt><trkpt lat="40.1010670336502" lon="8.783785220002635"><ele>277.0</ele><time>2026-04-26T13:27:41.886Z</time></trkpt><trkpt lat="40.10094921544586" lon="8.783606786794246"><ele>277.3333333333333</ele><time>2026-04-26T13:27:42.886Z</time></trkpt><trkpt lat="40.10083436279878" lon="8.783429387144704"><ele>277.6666666666667</ele><time>2026-04-26T13:27:43.886Z</time></trkpt><trkpt lat="40.10071953354166" lon="8.783251217470246"><ele>278.0</ele><time>2026-04-26T13:27:44.886Z</time></trkpt><trkpt lat="40.1006050334408" lon="8.783072595512857"><ele>277.0</ele><time>2026-04-26T13:27:45.886Z</time></trkpt><trkpt lat="40.10049022701615" lon="8.782887714708968"><ele>276.0</ele><time>2026-04-26T13:27:46.886Z</time></trkpt><trkpt lat="40.10037643082361" lon="8.782701701049769"><ele>275.0</ele><time>2026-04-26T13:27:47.886Z</time></trkpt><trkpt lat="40.10026283706781" lon="8.782515291961838"><ele>275.0</ele><time>2026-04-26T13:27:48.886Z</time></trkpt><trkpt lat="40.100148785071575" lon="8.782328072684406"><ele>275.0</ele><time>2026-04-26T13:27:49.884Z</time></trkpt><trkpt lat="40.1000370732236" lon="8.782141427285591"><ele>275.0</ele><time>2026-04-26T13:27:50.884Z</time></trkpt><trkpt lat="40.09992268934587" lon="8.781958729166353"><ele>275.33333333333337</ele><time>2026-04-26T13:27:51.884Z</time></trkpt><trkpt lat="40.099809674007396" lon="8.781775208699518"><ele>275.6666666666667</ele><time>2026-04-26T13:27:52.884Z</time></trkpt><trkpt lat="40.099696893472455" lon="8.781594835933824"><ele>276.0</ele><time>2026-04-26T13:27:53.884Z</time></trkpt><trkpt lat="40.09958138091985" lon="8.78140866939114"><ele>276.0</ele><time>2026-04-26T13:27:54.884Z</time></trkpt><trkpt lat="40.09946309210911" lon="8.781224190499074"><ele>276.0</ele><time>2026-04-26T13:27:55.884Z</time></trkpt><trkpt lat="40.09934678094427" lon="8.781036036730596"><ele>276.0</ele><time>2026-04-26T13:27:56.884Z</time></trkpt><trkpt lat="40.099227946802415" lon="8.780851526910551"><ele>275.6666666666667</ele><time>2026-04-26T13:27:57.884Z</time></trkpt><trkpt lat="40.099107387661235" lon="8.780671941892349"><ele>275.33333333333337</ele><time>2026-04-26T13:27:58.884Z</time></trkpt><trkpt lat="40.09898692687751" lon="8.780490356853296"><ele>275.0</ele><time>2026-04-26T13:27:59.884Z</time></trkpt><trkpt lat="40.09886749128466" lon="8.780304449790277"><ele>275.0</ele><time>2026-04-26T13:28:00.884Z</time></trkpt><trkpt lat="40.098748588016576" lon="8.78012023315917"><ele>275.0</ele><time>2026-04-26T13:28:01.884Z</time></trkpt><trkpt lat="40.098630391082544" lon="8.779937326345367"><ele>275.0</ele><time>2026-04-26T13:28:02.883Z</time></trkpt><trkpt lat="40.098512242352385" lon="8.779755909125686"><ele>275.0</ele><time>2026-04-26T13:28:03.883Z</time></trkpt><trkpt lat="40.09840371141716" lon="8.779569412375608"><ele>275.0</ele><time>2026-04-26T13:28:04.883Z</time></trkpt><trkpt lat="40.09829033485993" lon="8.779390079666069"><ele>275.0</ele><time>2026-04-26T13:28:05.883Z</time></trkpt><trkpt lat="40.098173948127666" lon="8.77920572798312"><ele>275.0</ele><time>2026-04-26T13:28:06.883Z</time></trkpt><trkpt lat="40.098060391908454" lon="8.779023678652791"><ele>275.0</ele><time>2026-04-26T13:28:07.883Z</time></trkpt><trkpt lat="40.09794572797663" lon="8.778839723547653"><ele>275.0</ele><time>2026-04-26T13:28:08.883Z</time></trkpt><trkpt lat="40.09783079567403" lon="8.778650816481518"><ele>275.33333333333337</ele><time>2026-04-26T13:28:09.883Z</time></trkpt><trkpt lat="40.09771474233741" lon="8.778462044059316"><ele>275.6666666666667</ele><time>2026-04-26T13:28:10.884Z</time></trkpt><trkpt lat="40.09759947337987" lon="8.778276003262626"><ele>276.0</ele><time>2026-04-26T13:28:11.884Z</time></trkpt><trkpt lat="40.09748004606853" lon="8.778090428103425"><ele>276.0</ele><time>2026-04-26T13:28:12.884Z</time></trkpt><trkpt lat="40.0973632640364" lon="8.777903206483701"><ele>276.0</ele><time>2026-04-26T13:28:13.884Z</time></trkpt><trkpt lat="40.09724804389983" lon="8.777720058606976"><ele>276.0</ele><time>2026-04-26T13:28:14.884Z</time></trkpt><trkpt lat="40.09713444065033" lon="8.777536498958696"><ele>276.6666666666667</ele><time>2026-04-26T13:28:15.884Z</time></trkpt><trkpt lat="40.09702019548156" lon="8.777348365307533"><ele>277.33333333333337</ele><time>2026-04-26T13:28:16.884Z</time></trkpt><trkpt lat="40.096905225453476" lon="8.777166686120447"><ele>278.0</ele><time>2026-04-26T13:28:17.884Z</time></trkpt><trkpt lat="40.096790164958996" lon="8.776988330021192"><ele>278.6666666666667</ele><time>2026-04-26T13:28:18.884Z</time></trkpt><trkpt lat="40.09667520742385" lon="8.776805522359485"><ele>279.3333333333333</ele><time>2026-04-26T13:28:19.884Z</time></trkpt><trkpt lat="40.09656278758565" lon="8.776624592690887"><ele>280.0</ele><time>2026-04-26T13:28:20.884Z</time></trkpt><trkpt lat="40.09645118787738" lon="8.776442310635135"><ele>280.0</ele><time>2026-04-26T13:28:21.884Z</time></trkpt><trkpt lat="40.09633782831623" lon="8.776257665188279"><ele>280.0</ele><time>2026-04-26T13:28:22.884Z</time></trkpt><trkpt lat="40.0962290116501" lon="8.776072245759982"><ele>280.0</ele><time>2026-04-26T13:28:23.884Z</time></trkpt><trkpt lat="40.09612176555341" lon="8.775883949913137"><ele>280.3333333333333</ele><time>2026-04-26T13:28:24.884Z</time></trkpt><trkpt lat="40.09601622259937" lon="8.775691722612866"><ele>280.6666666666667</ele><time>2026-04-26T13:28:25.884Z</time></trkpt><trkpt lat="40.09591687306273" lon="8.775491143443269"><ele>281.0</ele><time>2026-04-26T13:28:26.884Z</time></trkpt><trkpt lat="40.0958220771676" lon="8.775287584845294"><ele>281.6666666666667</ele><time>2026-04-26T13:28:27.884Z</time></trkpt><trkpt lat="40.09573332720434" lon="8.77508267846618"><ele>282.3333333333333</ele><time>2026-04-26T13:28:28.884Z</time></trkpt><trkpt lat="40.09565390034392" lon="8.774869875910733"><ele>283.0</ele><time>2026-04-26T13:28:29.884Z</time></trkpt><trkpt lat="40.095576608318424" lon="8.774659678540916"><ele>283.0</ele><time>2026-04-26T13:28:30.884Z</time></trkpt><trkpt lat="40.095503550060485" lon="8.774449162104599"><ele>283.0</ele><time>2026-04-26T13:28:31.884Z</time></trkpt><trkpt lat="40.09543419369915" lon="8.774238261479567"><ele>283.0</ele><time>2026-04-26T13:28:32.884Z</time></trkpt><trkpt lat="40.095368892442906" lon="8.774026966216931"><ele>285.0</ele><time>2026-04-26T13:28:33.884Z</time></trkpt><trkpt lat="40.09530492507058" lon="8.773813327750787"><ele>287.0</ele><time>2026-04-26T13:28:34.884Z</time></trkpt><trkpt lat="40.095242708309755" lon="8.773598606885963"><ele>289.0</ele><time>2026-04-26T13:28:35.884Z</time></trkpt><trkpt lat="40.09517927721828" lon="8.773383231679986"><ele>289.66666666666663</ele><time>2026-04-26T13:28:36.884Z</time></trkpt><trkpt lat="40.095117317614225" lon="8.773162435595028"><ele>290.3333333333333</ele><time>2026-04-26T13:28:37.884Z</time></trkpt><trkpt lat="40.09505849925431" lon="8.772943918808643"><ele>291.0</ele><time>2026-04-26T13:28:38.884Z</time></trkpt><trkpt lat="40.09499715942587" lon="8.772721020117958"><ele>291.6666666666667</ele><time>2026-04-26T13:28:39.884Z</time></trkpt><trkpt lat="40.094936484668715" lon="8.7725009724356"><ele>292.33333333333337</ele><time>2026-04-26T13:28:40.884Z</time></trkpt><trkpt lat="40.09487337316786" lon="8.772274455885077"><ele>293.0</ele><time>2026-04-26T13:28:41.884Z</time></trkpt><trkpt lat="40.09480887907871" lon="8.772055399293793"><ele>294.6666666666667</ele><time>2026-04-26T13:28:42.884Z</time></trkpt><trkpt lat="40.09474816230016" lon="8.77183186344102"><ele>296.3333333333333</ele><time>2026-04-26T13:28:43.884Z</time></trkpt><trkpt lat="40.09468173080803" lon="8.77160681969618"><ele>298.0</ele><time>2026-04-26T13:28:44.884Z</time></trkpt><trkpt lat="40.094620833790714" lon="8.771383522677983"><ele>298.0</ele><time>2026-04-26T13:28:45.884Z</time></trkpt><trkpt lat="40.09456649325518" lon="8.771161121168358"><ele>298.0</ele><time>2026-04-26T13:28:46.884Z</time></trkpt><trkpt lat="40.09450885989739" lon="8.770936463826901"><ele>298.0</ele><time>2026-04-26T13:28:47.884Z</time></trkpt><trkpt lat="40.09444552405923" lon="8.770713126590186"><ele>298.0</ele><time>2026-04-26T13:28:48.884Z</time></trkpt><trkpt lat="40.094381911702925" lon="8.770485631053422"><ele>298.0</ele><time>2026-04-26T13:28:49.884Z</time></trkpt><trkpt lat="40.09431566109854" lon="8.770258658120504"><ele>298.0</ele><time>2026-04-26T13:28:50.884Z</time></trkpt><trkpt lat="40.09424650630299" lon="8.770034915631506"><ele>298.0</ele><time>2026-04-26T13:28:51.884Z</time></trkpt><trkpt lat="40.09417910043285" lon="8.76980167610134"><ele>298.0</ele><time>2026-04-26T13:28:52.884Z</time></trkpt><trkpt lat="40.094110218088645" lon="8.769566927047018"><ele>298.0</ele><time>2026-04-26T13:28:53.884Z</time></trkpt><trkpt lat="40.094043737469796" lon="8.769333209204468"><ele>297.3333333333333</ele><time>2026-04-26T13:28:54.884Z</time></trkpt><trkpt lat="40.09397952815899" lon="8.769098176569884"><ele>296.6666666666667</ele><time>2026-04-26T13:28:55.884Z</time></trkpt><trkpt lat="40.09391597272895" lon="8.768860138689147"><ele>296.0</ele><time>2026-04-26T13:28:56.884Z</time></trkpt><trkpt lat="40.09385334746392" lon="8.768623898333395"><ele>296.33333333333337</ele><time>2026-04-26T13:28:57.884Z</time></trkpt><trkpt lat="40.09379131246216" lon="8.768388282673204"><ele>296.6666666666667</ele><time>2026-04-26T13:28:58.884Z</time></trkpt><trkpt lat="40.09372702589685" lon="8.76815491937219"><ele>297.0</ele><time>2026-04-26T13:28:59.884Z</time></trkpt><trkpt lat="40.09366000611224" lon="8.767915851692093"><ele>297.6666666666667</ele><time>2026-04-26T13:29:00.884Z</time></trkpt><trkpt lat="40.0935955303684" lon="8.767681137495234"><ele>298.33333333333337</ele><time>2026-04-26T13:29:01.884Z</time></trkpt><trkpt lat="40.093530378472224" lon="8.767446735542583"><ele>299.0</ele><time>2026-04-26T13:29:02.884Z</time></trkpt><trkpt lat="40.09346238186988" lon="8.767208578998307"><ele>299.0</ele><time>2026-04-26T13:29:03.884Z</time></trkpt><trkpt lat="40.093397428456306" lon="8.76697775410804"><ele>299.0</ele><time>2026-04-26T13:29:04.884Z</time></trkpt><trkpt lat="40.0933339368997" lon="8.766751523409285"><ele>299.0</ele><time>2026-04-26T13:29:05.884Z</time></trkpt><trkpt lat="40.09326559275996" lon="8.76652163650039"><ele>299.0</ele><time>2026-04-26T13:29:06.884Z</time></trkpt><trkpt lat="40.09320081116731" lon="8.766295370850035"><ele>299.0</ele><time>2026-04-26T13:29:07.884Z</time></trkpt><trkpt lat="40.09314005919061" lon="8.766070061924665"><ele>299.0</ele><time>2026-04-26T13:29:08.884Z</time></trkpt><trkpt lat="40.093078587179704" lon="8.765846816830285"><ele>299.33333333333337</ele><time>2026-04-26T13:29:09.884Z</time></trkpt><trkpt lat="40.093022256147606" lon="8.765623328389747"><ele>299.6666666666667</ele><time>2026-04-26T13:29:10.884Z</time></trkpt><trkpt lat="40.092969741005774" lon="8.765407767881085"><ele>300.0</ele><time>2026-04-26T13:29:11.884Z</time></trkpt><trkpt lat="40.09291636818313" lon="8.76519763358042"><ele>299.6666666666667</ele><time>2026-04-26T13:29:12.884Z</time></trkpt><trkpt lat="40.092862533744274" lon="8.764984812436042"><ele>299.33333333333337</ele><time>2026-04-26T13:29:13.884Z</time></trkpt><trkpt lat="40.09280973797935" lon="8.764773381351969"><ele>299.0</ele><time>2026-04-26T13:29:14.884Z</time></trkpt><trkpt lat="40.09275382188643" lon="8.764569045486724"><ele>299.6666666666667</ele><time>2026-04-26T13:29:15.884Z</time></trkpt><trkpt lat="40.092693920371794" lon="8.7643595831096"><ele>300.3333333333333</ele><time>2026-04-26T13:29:16.884Z</time></trkpt><trkpt lat="40.09263241266249" lon="8.764146629519441"><ele>301.0</ele><time>2026-04-26T13:29:17.884Z</time></trkpt><trkpt lat="40.092566757211905" lon="8.763923524844"><ele>301.0</ele><time>2026-04-26T13:29:18.884Z</time></trkpt><trkpt lat="40.0925058495944" lon="8.763702368662809"><ele>301.0</ele><time>2026-04-26T13:29:19.884Z</time></trkpt><trkpt lat="40.092445251184664" lon="8.763479814555184"><ele>301.0</ele><time>2026-04-26T13:29:20.884Z</time></trkpt><trkpt lat="40.09238171483199" lon="8.763255391570034"><ele>300.3333333333333</ele><time>2026-04-26T13:29:21.884Z</time></trkpt><trkpt lat="40.092316492036595" lon="8.763029294414428"><ele>299.6666666666667</ele><time>2026-04-26T13:29:22.884Z</time></trkpt><trkpt lat="40.0922508836196" lon="8.762798740179903"><ele>299.0</ele><time>2026-04-26T13:29:23.884Z</time></trkpt><trkpt lat="40.09218715409409" lon="8.762570389690636"><ele>299.0</ele><time>2026-04-26T13:29:24.884Z</time></trkpt><trkpt lat="40.09212515306494" lon="8.762343398625815"><ele>299.0</ele><time>2026-04-26T13:29:25.884Z</time></trkpt><trkpt lat="40.09206346498698" lon="8.762115225595283"><ele>299.0</ele><time>2026-04-26T13:29:26.884Z</time></trkpt><trkpt lat="40.09200424738605" lon="8.761890897203745"><ele>298.6666666666667</ele><time>2026-04-26T13:29:27.884Z</time></trkpt><trkpt lat="40.09194536035566" lon="8.761669844164794"><ele>298.3333333333333</ele><time>2026-04-26T13:29:28.884Z</time></trkpt><trkpt lat="40.09188562996175" lon="8.761449631015287"><ele>298.0</ele><time>2026-04-26T13:29:29.884Z</time></trkpt><trkpt lat="40.09182394753693" lon="8.761223961883479"><ele>298.0</ele><time>2026-04-26T13:29:30.884Z</time></trkpt><trkpt lat="40.09176680367139" lon="8.761002323420994"><ele>298.0</ele><time>2026-04-26T13:29:31.884Z</time></trkpt><trkpt lat="40.09170639842754" lon="8.760778090117968"><ele>298.0</ele><time>2026-04-26T13:29:32.884Z</time></trkpt><trkpt lat="40.09164534643154" lon="8.760557186072292"><ele>298.0</ele><time>2026-04-26T13:29:33.884Z</time></trkpt><trkpt lat="40.091590107504835" lon="8.760343026289455"><ele>298.0</ele><time>2026-04-26T13:29:34.884Z</time></trkpt><trkpt lat="40.09153355453926" lon="8.760123045249602"><ele>298.0</ele><time>2026-04-26T13:29:35.884Z</time></trkpt><trkpt lat="40.09147608471588" lon="8.759904485260833"><ele>298.0</ele><time>2026-04-26T13:29:36.884Z</time></trkpt><trkpt lat="40.09142026080643" lon="8.759687006667608"><ele>298.0</ele><time>2026-04-26T13:29:37.884Z</time></trkpt><trkpt lat="40.09135870249543" lon="8.759466028386834"><ele>298.0</ele><time>2026-04-26T13:29:38.884Z</time></trkpt><trkpt lat="40.09129506610898" lon="8.759244673089091"><ele>297.66666666666663</ele><time>2026-04-26T13:29:39.884Z</time></trkpt><trkpt lat="40.09123133699202" lon="8.759027429318325"><ele>297.3333333333333</ele><time>2026-04-26T13:29:40.884Z</time></trkpt><trkpt lat="40.09115992344517" lon="8.758810850016184"><ele>297.0</ele><time>2026-04-26T13:29:41.884Z</time></trkpt><trkpt lat="40.091084780676475" lon="8.75860210306821"><ele>296.3333333333333</ele><time>2026-04-26T13:29:42.884Z</time></trkpt><trkpt lat="40.09100652926205" lon="8.758400233505194"><ele>295.66666666666663</ele><time>2026-04-26T13:29:43.884Z</time></trkpt><trkpt lat="40.09091406619914" lon="8.758196684093816"><ele>295.0</ele><time>2026-04-26T13:29:44.884Z</time></trkpt><trkpt lat="40.09081732451057" lon="8.757992034398386"><ele>294.66666666666663</ele><time>2026-04-26T13:29:45.884Z</time></trkpt><trkpt lat="40.09072389116362" lon="8.757795907453778"><ele>294.3333333333333</ele><time>2026-04-26T13:29:46.884Z</time></trkpt><trkpt lat="40.090622333511895" lon="8.757606088099365"><ele>294.0</ele><time>2026-04-26T13:29:47.884Z</time></trkpt><trkpt lat="40.090519210244054" lon="8.757423892563619"><ele>293.6666666666667</ele><time>2026-04-26T13:29:48.884Z</time></trkpt><trkpt lat="40.09041327455386" lon="8.757241992350174"><ele>293.33333333333337</ele><time>2026-04-26T13:29:49.884Z</time></trkpt><trkpt lat="40.09030722315009" lon="8.757066894020625"><ele>293.0</ele><time>2026-04-26T13:29:50.884Z</time></trkpt><trkpt lat="40.09019874633376" lon="8.75689755678013"><ele>292.6666666666667</ele><time>2026-04-26T13:29:51.884Z</time></trkpt><trkpt lat="40.09008571548418" lon="8.756732063735972"><ele>292.3333333333333</ele><time>2026-04-26T13:29:52.884Z</time></trkpt><trkpt lat="40.089966452782384" lon="8.756573496656248"><ele>292.0</ele><time>2026-04-26T13:29:53.884Z</time></trkpt><trkpt lat="40.089837083717704" lon="8.756425801803656"><ele>291.3333333333333</ele><time>2026-04-26T13:29:54.884Z</time></trkpt><trkpt lat="40.08970931493809" lon="8.756286043192237"><ele>290.6666666666667</ele><time>2026-04-26T13:29:55.883Z</time></trkpt><trkpt lat="40.08957770947713" lon="8.75614923608524"><ele>290.0</ele><time>2026-04-26T13:29:56.883Z</time></trkpt><trkpt lat="40.089439216332664" lon="8.756012553886453"><ele>290.0</ele><time>2026-04-26T13:29:57.883Z</time></trkpt><trkpt lat="40.089296514454574" lon="8.755879173203917"><ele>290.0</ele><time>2026-04-26T13:29:58.883Z</time></trkpt><trkpt lat="40.08914949755978" lon="8.755751363470335"><ele>290.0</ele><time>2026-04-26T13:29:59.882Z</time></trkpt><trkpt lat="40.08899631794994" lon="8.755631568849275"><ele>289.33333333333337</ele><time>2026-04-26T13:30:00.882Z</time></trkpt><trkpt lat="40.08883958147958" lon="8.755517583072962"><ele>288.6666666666667</ele><time>2026-04-26T13:30:01.883Z</time></trkpt><trkpt lat="40.08868043377151" lon="8.755411730587717"><ele>288.0</ele><time>2026-04-26T13:30:02.883Z</time></trkpt><trkpt lat="40.0885211810131" lon="8.755307370697677"><ele>287.6666666666667</ele><time>2026-04-26T13:30:03.883Z</time></trkpt><trkpt lat="40.08835943270152" lon="8.755201049844134"><ele>287.33333333333337</ele><time>2026-04-26T13:30:04.883Z</time></trkpt><trkpt lat="40.08819573621474" lon="8.755098415634603"><ele>287.0</ele><time>2026-04-26T13:30:05.883Z</time></trkpt><trkpt lat="40.088032950865575" lon="8.754992217683558"><ele>286.33333333333337</ele><time>2026-04-26T13:30:06.883Z</time></trkpt><trkpt lat="40.08786991899525" lon="8.75489075986273"><ele>285.6666666666667</ele><time>2026-04-26T13:30:07.883Z</time></trkpt><trkpt lat="40.08770876960698" lon="8.754792058538948"><ele>285.0</ele><time>2026-04-26T13:30:08.883Z</time></trkpt><trkpt lat="40.08755106121928" lon="8.7546908805099"><ele>284.3333333333333</ele><time>2026-04-26T13:30:09.883Z</time></trkpt><trkpt lat="40.087392955316325" lon="8.754593080948656"><ele>283.66666666666663</ele><time>2026-04-26T13:30:10.883Z</time></trkpt><trkpt lat="40.08723827371945" lon="8.754493865782342"><ele>283.0</ele><time>2026-04-26T13:30:11.883Z</time></trkpt><trkpt lat="40.087082949332775" lon="8.75439687736218"><ele>282.66666666666663</ele><time>2026-04-26T13:30:12.883Z</time></trkpt><trkpt lat="40.086926240189776" lon="8.754300150649733"><ele>282.3333333333333</ele><time>2026-04-26T13:30:13.883Z</time></trkpt><trkpt lat="40.08676864760188" lon="8.75420759914766"><ele>282.0</ele><time>2026-04-26T13:30:14.883Z</time></trkpt><trkpt lat="40.08661245907953" lon="8.75411135959053"><ele>281.3333333333333</ele><time>2026-04-26T13:30:15.883Z</time></trkpt><trkpt lat="40.08645642323084" lon="8.75401468387512"><ele>280.66666666666663</ele><time>2026-04-26T13:30:16.883Z</time></trkpt><trkpt lat="40.086303455636155" lon="8.753920332322513"><ele>280.0</ele><time>2026-04-26T13:30:17.883Z</time></trkpt><trkpt lat="40.08614914041517" lon="8.753829500337263"><ele>280.0</ele><time>2026-04-26T13:30:18.883Z</time></trkpt><trkpt lat="40.085996256441994" lon="8.75373541144966"><ele>280.0</ele><time>2026-04-26T13:30:19.883Z</time></trkpt><trkpt lat="40.085839323459645" lon="8.753644183138913"><ele>280.0</ele><time>2026-04-26T13:30:20.883Z</time></trkpt><trkpt lat="40.0856840027754" lon="8.753551482668788"><ele>277.3333333333333</ele><time>2026-04-26T13:30:21.883Z</time></trkpt><trkpt lat="40.08552715682491" lon="8.753460438894564"><ele>274.6666666666667</ele><time>2026-04-26T13:30:22.883Z</time></trkpt><trkpt lat="40.08537740071927" lon="8.753362360406621"><ele>272.0</ele><time>2026-04-26T13:30:23.883Z</time></trkpt><trkpt lat="40.08522968337822" lon="8.75326722705603"><ele>272.0</ele><time>2026-04-26T13:30:24.883Z</time></trkpt><trkpt lat="40.08507865612869" lon="8.753170385093716"><ele>272.0</ele><time>2026-04-26T13:30:25.883Z</time></trkpt><trkpt lat="40.084925014018836" lon="8.753077043925586"><ele>272.0</ele><time>2026-04-26T13:30:26.883Z</time></trkpt><trkpt lat="40.08477367200553" lon="8.752978038446528"><ele>269.0</ele><time>2026-04-26T13:30:27.883Z</time></trkpt><trkpt lat="40.08462631160618" lon="8.752883322388291"><ele>266.0</ele><time>2026-04-26T13:30:28.883Z</time></trkpt><trkpt lat="40.08447164476712" lon="8.752787499898263"><ele>263.0</ele><time>2026-04-26T13:30:29.883Z</time></trkpt><trkpt lat="40.08431052852038" lon="8.752694383880762"><ele>262.6666666666667</ele><time>2026-04-26T13:30:30.883Z</time></trkpt><trkpt lat="40.08416018834042" lon="8.752594348301935"><ele>262.3333333333333</ele><time>2026-04-26T13:30:31.883Z</time></trkpt><trkpt lat="40.08400866634753" lon="8.752501060961194"><ele>262.0</ele><time>2026-04-26T13:30:32.883Z</time></trkpt><trkpt lat="40.08385678611874" lon="8.752407241757078"><ele>262.66666666666663</ele><time>2026-04-26T13:30:33.883Z</time></trkpt><trkpt lat="40.08370462826665" lon="8.752313698308535"><ele>263.3333333333333</ele><time>2026-04-26T13:30:34.883Z</time></trkpt><trkpt lat="40.08355880628271" lon="8.752225528190548"><ele>264.0</ele><time>2026-04-26T13:30:35.883Z</time></trkpt><trkpt lat="40.08341171959081" lon="8.752146401869025"><ele>264.0</ele><time>2026-04-26T13:30:36.883Z</time></trkpt><trkpt lat="40.08326831105482" lon="8.752072048428628"><ele>264.0</ele><time>2026-04-26T13:30:37.883Z</time></trkpt><trkpt lat="40.08311720648009" lon="8.752004598448316"><ele>264.0</ele><time>2026-04-26T13:30:38.883Z</time></trkpt><trkpt lat="40.08296238520345" lon="8.751942755864954"><ele>263.0</ele><time>2026-04-26T13:30:39.883Z</time></trkpt><trkpt lat="40.08280376707447" lon="8.75188489721087"><ele>262.0</ele><time>2026-04-26T13:30:40.883Z</time></trkpt><trkpt lat="40.08264174218915" lon="8.75183707721599"><ele>261.0</ele><time>2026-04-26T13:30:41.883Z</time></trkpt><trkpt lat="40.082480211018485" lon="8.751797465040816"><ele>264.3333333333333</ele><time>2026-04-26T13:30:42.884Z</time></trkpt><trkpt lat="40.08231653643516" lon="8.751768258485898"><ele>267.66666666666663</ele><time>2026-04-26T13:30:43.884Z</time></trkpt><trkpt lat="40.08214780926696" lon="8.751744265407336"><ele>271.0</ele><time>2026-04-26T13:30:44.884Z</time></trkpt><trkpt lat="40.08197875173901" lon="8.75172676518679"><ele>271.0</ele><time>2026-04-26T13:30:45.884Z</time></trkpt><trkpt lat="40.08180860687422" lon="8.751714360364588"><ele>271.0</ele><time>2026-04-26T13:30:46.884Z</time></trkpt><trkpt lat="40.08164214091485" lon="8.751707491047386"><ele>271.0</ele><time>2026-04-26T13:30:47.884Z</time></trkpt><trkpt lat="40.08147669342909" lon="8.751701483697733"><ele>271.0</ele><time>2026-04-26T13:30:48.884Z</time></trkpt><trkpt lat="40.081308018026355" lon="8.751700195014715"><ele>271.0</ele><time>2026-04-26T13:30:49.884Z</time></trkpt><trkpt lat="40.08114144721934" lon="8.75169883640458"><ele>271.0</ele><time>2026-04-26T13:30:50.884Z</time></trkpt><trkpt lat="40.08097375173105" lon="8.751694694535004"><ele>271.0</ele><time>2026-04-26T13:30:51.884Z</time></trkpt><trkpt lat="40.08080527870768" lon="8.751693709166176"><ele>271.0</ele><time>2026-04-26T13:30:52.884Z</time></trkpt><trkpt lat="40.08063829277452" lon="8.75169110022861"><ele>271.0</ele><time>2026-04-26T13:30:53.884Z</time></trkpt><trkpt lat="40.08047051104229" lon="8.751689575902924"><ele>271.0</ele><time>2026-04-26T13:30:54.884Z</time></trkpt><trkpt lat="40.08030476886686" lon="8.751683607529829"><ele>271.0</ele><time>2026-04-26T13:30:55.884Z</time></trkpt><trkpt lat="40.080138411027484" lon="8.751679520067064"><ele>271.0</ele><time>2026-04-26T13:30:56.884Z</time></trkpt><trkpt lat="40.07997142099728" lon="8.751677979313984"><ele>271.0</ele><time>2026-04-26T13:30:57.884Z</time></trkpt><trkpt lat="40.07980847742534" lon="8.75167263525559"><ele>271.0</ele><time>2026-04-26T13:30:58.884Z</time></trkpt><trkpt lat="40.07964429468499" lon="8.751666367680091"><ele>271.0</ele><time>2026-04-26T13:30:59.884Z</time></trkpt><trkpt lat="40.07948080102757" lon="8.751659862049518"><ele>271.0</ele><time>2026-04-26T13:31:00.884Z</time></trkpt><trkpt lat="40.0793166623453" lon="8.751658549100746"><ele>271.0</ele><time>2026-04-26T13:31:01.884Z</time></trkpt><trkpt lat="40.07915167479272" lon="8.751656410135936"><ele>271.0</ele><time>2026-04-26T13:31:02.884Z</time></trkpt><trkpt lat="40.07898215068013" lon="8.75165375502477"><ele>271.0</ele><time>2026-04-26T13:31:03.884Z</time></trkpt><trkpt lat="40.07881023256563" lon="8.751649919488427"><ele>271.0</ele><time>2026-04-26T13:31:04.884Z</time></trkpt><trkpt lat="40.07863798766064" lon="8.751646291026312"><ele>271.0</ele><time>2026-04-26T13:31:05.884Z</time></trkpt><trkpt lat="40.07846400018364" lon="8.751638982083318"><ele>271.0</ele><time>2026-04-26T13:31:06.884Z</time></trkpt><trkpt lat="40.07829140871961" lon="8.751631152420453"><ele>271.0</ele><time>2026-04-26T13:31:07.884Z</time></trkpt><trkpt lat="40.07811789982159" lon="8.751618982446827"><ele>271.0</ele><time>2026-04-26T13:31:08.884Z</time></trkpt><trkpt lat="40.0779460074332" lon="8.751599966554291"><ele>270.3333333333333</ele><time>2026-04-26T13:31:09.884Z</time></trkpt><trkpt lat="40.07777563554569" lon="8.751573555878032"><ele>269.6666666666667</ele><time>2026-04-26T13:31:10.884Z</time></trkpt><trkpt lat="40.077613590798364" lon="8.751536336929924"><ele>269.0</ele><time>2026-04-26T13:31:11.884Z</time></trkpt><trkpt lat="40.077449560571324" lon="8.751494316646301"><ele>267.0</ele><time>2026-04-26T13:31:12.884Z</time></trkpt><trkpt lat="40.07728411455542" lon="8.751445179167586"><ele>265.0</ele><time>2026-04-26T13:31:13.884Z</time></trkpt><trkpt lat="40.07711886965021" lon="8.751392571432785"><ele>263.0</ele><time>2026-04-26T13:31:14.884Z</time></trkpt><trkpt lat="40.07695701475061" lon="8.751331516537146"><ele>263.0</ele><time>2026-04-26T13:31:15.884Z</time></trkpt><trkpt lat="40.07679769022002" lon="8.751262554258807"><ele>263.0</ele><time>2026-04-26T13:31:16.884Z</time></trkpt><trkpt lat="40.07664244585731" lon="8.75118721873435"><ele>263.0</ele><time>2026-04-26T13:31:17.884Z</time></trkpt><trkpt lat="40.07648765852293" lon="8.751110171097588"><ele>262.33333333333337</ele><time>2026-04-26T13:31:18.884Z</time></trkpt><trkpt lat="40.07633181649508" lon="8.751023136209271"><ele>261.6666666666667</ele><time>2026-04-26T13:31:19.884Z</time></trkpt><trkpt lat="40.0761798799978" lon="8.750931686986048"><ele>261.0</ele><time>2026-04-26T13:31:20.884Z</time></trkpt><trkpt lat="40.07603198506459" lon="8.750838480376988"><ele>261.0</ele><time>2026-04-26T13:31:21.884Z</time></trkpt><trkpt lat="40.0758845474276" lon="8.750733441874502"><ele>261.0</ele><time>2026-04-26T13:31:22.884Z</time></trkpt><trkpt lat="40.075738951871315" lon="8.750624770546203"><ele>261.0</ele><time>2026-04-26T13:31:23.884Z</time></trkpt><trkpt lat="40.07559786041831" lon="8.750515018311782"><ele>259.6666666666667</ele><time>2026-04-26T13:31:24.884Z</time></trkpt><trkpt lat="40.07545818671762" lon="8.75040403977237"><ele>258.33333333333337</ele><time>2026-04-26T13:31:25.884Z</time></trkpt><trkpt lat="40.07531356843648" lon="8.750290232699285"><ele>257.0</ele><time>2026-04-26T13:31:26.884Z</time></trkpt><trkpt lat="40.07516515121408" lon="8.750174340288655"><ele>257.0</ele><time>2026-04-26T13:31:27.884Z</time></trkpt><trkpt lat="40.075014731653866" lon="8.750060301316793"><ele>257.0</ele><time>2026-04-26T13:31:28.884Z</time></trkpt><trkpt lat="40.07486794717977" lon="8.749945788535706"><ele>257.0</ele><time>2026-04-26T13:31:29.884Z</time></trkpt><trkpt lat="40.074722391983244" lon="8.749829378375823"><ele>254.66666666666669</ele><time>2026-04-26T13:31:30.884Z</time></trkpt><trkpt lat="40.07457244976491" lon="8.749711019473885"><ele>252.33333333333331</ele><time>2026-04-26T13:31:31.884Z</time></trkpt><trkpt lat="40.074424451183035" lon="8.7495912709871"><ele>250.0</ele><time>2026-04-26T13:31:32.884Z</time></trkpt><trkpt lat="40.074277088223255" lon="8.749471454040602"><ele>250.33333333333331</ele><time>2026-04-26T13:31:33.884Z</time></trkpt><trkpt lat="40.074127204958415" lon="8.749355604615374"><ele>250.66666666666669</ele><time>2026-04-26T13:31:34.884Z</time></trkpt><trkpt lat="40.0739779478058" lon="8.749238908946404"><ele>251.0</ele><time>2026-04-26T13:31:35.884Z</time></trkpt><trkpt lat="40.07382700756692" lon="8.749120288291829"><ele>250.0</ele><time>2026-04-26T13:31:36.884Z</time></trkpt><trkpt lat="40.07367270762139" lon="8.748998416571057"><ele>249.0</ele><time>2026-04-26T13:31:37.884Z</time></trkpt><trkpt lat="40.073521164159615" lon="8.748878500296984"><ele>248.0</ele><time>2026-04-26T13:31:38.884Z</time></trkpt><trkpt lat="40.07337125574551" lon="8.74876089116478"><ele>246.66666666666669</ele><time>2026-04-26T13:31:39.884Z</time></trkpt><trkpt lat="40.073217864440785" lon="8.74863819610804"><ele>245.33333333333331</ele><time>2026-04-26T13:31:40.884Z</time></trkpt><trkpt lat="40.07306549877522" lon="8.748520431215935"><ele>244.0</ele><time>2026-04-26T13:31:41.884Z</time></trkpt><trkpt lat="40.07290913210992" lon="8.748402920055899"><ele>244.0</ele><time>2026-04-26T13:31:42.884Z</time></trkpt><trkpt lat="40.07275701664633" lon="8.74828477651611"><ele>244.0</ele><time>2026-04-26T13:31:43.884Z</time></trkpt><trkpt lat="40.072602524913975" lon="8.74816430527146"><ele>244.0</ele><time>2026-04-26T13:31:44.884Z</time></trkpt><trkpt lat="40.07244821499819" lon="8.748046251414003"><ele>243.33333333333331</ele><time>2026-04-26T13:31:45.884Z</time></trkpt><trkpt lat="40.072295400312186" lon="8.747927679647594"><ele>242.66666666666669</ele><time>2026-04-26T13:31:46.884Z</time></trkpt><trkpt lat="40.07214203261595" lon="8.747807412438211"><ele>242.0</ele><time>2026-04-26T13:31:47.884Z</time></trkpt><trkpt lat="40.07198919171873" lon="8.747689361055118"><ele>242.0</ele><time>2026-04-26T13:31:48.884Z</time></trkpt><trkpt lat="40.07183748358146" lon="8.747567186039781"><ele>242.0</ele><time>2026-04-26T13:31:49.884Z</time></trkpt><trkpt lat="40.07168668617554" lon="8.747447957223134"><ele>242.0</ele><time>2026-04-26T13:31:50.884Z</time></trkpt><trkpt lat="40.07153653684723" lon="8.74733364258038"><ele>241.0</ele><time>2026-04-26T13:31:51.884Z</time></trkpt><trkpt lat="40.07138528980302" lon="8.747211896814825"><ele>240.0</ele><time>2026-04-26T13:31:52.884Z</time></trkpt><trkpt lat="40.07123425868534" lon="8.747092422730422"><ele>239.0</ele><time>2026-04-26T13:31:53.884Z</time></trkpt><trkpt lat="40.07108070643164" lon="8.746969995763717"><ele>238.66666666666669</ele><time>2026-04-26T13:31:54.884Z</time></trkpt><trkpt lat="40.070926393426184" lon="8.746847770285386"><ele>238.33333333333331</ele><time>2026-04-26T13:31:55.884Z</time></trkpt><trkpt lat="40.070772554683124" lon="8.74672614349285"><ele>238.0</ele><time>2026-04-26T13:31:56.884Z</time></trkpt><trkpt lat="40.0706182134492" lon="8.746608228614607"><ele>238.0</ele><time>2026-04-26T13:31:57.884Z</time></trkpt><trkpt lat="40.07046172945602" lon="8.746484997846611"><ele>238.0</ele><time>2026-04-26T13:31:58.884Z</time></trkpt><trkpt lat="40.07030398791248" lon="8.746361210761615"><ele>238.0</ele><time>2026-04-26T13:31:59.884Z</time></trkpt><trkpt lat="40.07014585160541" lon="8.74623766327111"><ele>238.0</ele><time>2026-04-26T13:32:00.884Z</time></trkpt><trkpt lat="40.06998759086289" lon="8.746114157086057"><ele>238.0</ele><time>2026-04-26T13:32:01.882Z</time></trkpt><trkpt lat="40.06982942438801" lon="8.74599136218114"><ele>238.0</ele><time>2026-04-26T13:32:02.883Z</time></trkpt><trkpt lat="40.06967472038163" lon="8.74586889461984"><ele>237.66666666666666</ele><time>2026-04-26T13:32:03.883Z</time></trkpt><trkpt lat="40.0695214392796" lon="8.745750653192047"><ele>237.33333333333331</ele><time>2026-04-26T13:32:04.882Z</time></trkpt><trkpt lat="40.06936863595303" lon="8.745636143143974"><ele>237.0</ele><time>2026-04-26T13:32:05.882Z</time></trkpt><trkpt lat="40.0692155404398" lon="8.745517026859305"><ele>236.66666666666669</ele><time>2026-04-26T13:32:06.882Z</time></trkpt><trkpt lat="40.06906565131829" lon="8.745402501180413"><ele>236.33333333333334</ele><time>2026-04-26T13:32:07.882Z</time></trkpt><trkpt lat="40.06891246789547" lon="8.745283406797776"><ele>236.0</ele><time>2026-04-26T13:32:08.882Z</time></trkpt><trkpt lat="40.06875965447073" lon="8.745162712146858"><ele>236.0</ele><time>2026-04-26T13:32:09.883Z</time></trkpt><trkpt lat="40.06860921189817" lon="8.7450425651776"><ele>236.0</ele><time>2026-04-26T13:32:10.883Z</time></trkpt><trkpt lat="40.06845917216723" lon="8.744914041746794"><ele>236.0</ele><time>2026-04-26T13:32:11.882Z</time></trkpt><trkpt lat="40.06831602017383" lon="8.744780463433026"><ele>234.0</ele><time>2026-04-26T13:32:12.882Z</time></trkpt><trkpt lat="40.06817362316138" lon="8.744636843868165"><ele>232.0</ele><time>2026-04-26T13:32:13.882Z</time></trkpt><trkpt lat="40.06803307647423" lon="8.744485265929319"><ele>230.0</ele><time>2026-04-26T13:32:14.882Z</time></trkpt><trkpt lat="40.067895867423005" lon="8.744329699716166"><ele>230.0</ele><time>2026-04-26T13:32:15.882Z</time></trkpt><trkpt lat="40.06776050945909" lon="8.74416988412986"><ele>230.0</ele><time>2026-04-26T13:32:16.882Z</time></trkpt><trkpt lat="40.06762680910478" lon="8.744007034555189"><ele>230.0</ele><time>2026-04-26T13:32:17.882Z</time></trkpt><trkpt lat="40.06750355660337" lon="8.743842774680619"><ele>227.33333333333334</ele><time>2026-04-26T13:32:18.882Z</time></trkpt><trkpt lat="40.06738068056024" lon="8.743671441322556"><ele>224.66666666666669</ele><time>2026-04-26T13:32:19.882Z</time></trkpt><trkpt lat="40.06726092239628" lon="8.74349724465915"><ele>222.0</ele><time>2026-04-26T13:32:20.882Z</time></trkpt><trkpt lat="40.067146562256625" lon="8.743318624375389"><ele>222.0</ele><time>2026-04-26T13:32:21.882Z</time></trkpt><trkpt lat="40.06703828177919" lon="8.74314738076866"><ele>222.0</ele><time>2026-04-26T13:32:22.882Z</time></trkpt><trkpt lat="40.0669280251742" lon="8.742977392261746"><ele>222.0</ele><time>2026-04-26T13:32:23.882Z</time></trkpt><trkpt lat="40.066816040928416" lon="8.742801186551734"><ele>221.66666666666669</ele><time>2026-04-26T13:32:24.882Z</time></trkpt><trkpt lat="40.06670406471131" lon="8.742626636561564"><ele>221.33333333333334</ele><time>2026-04-26T13:32:25.883Z</time></trkpt><trkpt lat="40.06658971517514" lon="8.742452144038415"><ele>221.0</ele><time>2026-04-26T13:32:26.883Z</time></trkpt><trkpt lat="40.06647507079219" lon="8.74227515209556"><ele>221.0</ele><time>2026-04-26T13:32:27.883Z</time></trkpt><trkpt lat="40.066360857244106" lon="8.742093869150578"><ele>221.0</ele><time>2026-04-26T13:32:28.883Z</time></trkpt><trkpt lat="40.066244801602714" lon="8.741921513300989"><ele>221.0</ele><time>2026-04-26T13:32:29.883Z</time></trkpt><trkpt lat="40.06612990267148" lon="8.741760775294843"><ele>225.33333333333334</ele><time>2026-04-26T13:32:30.883Z</time></trkpt><trkpt lat="40.066020594708284" lon="8.741603684557838"><ele>229.66666666666669</ele><time>2026-04-26T13:32:31.883Z</time></trkpt><trkpt lat="40.0659076191081" lon="8.741443437311826"><ele>234.0</ele><time>2026-04-26T13:32:32.883Z</time></trkpt><trkpt lat="40.065791961222786" lon="8.741270722674402"><ele>232.66666666666669</ele><time>2026-04-26T13:32:33.883Z</time></trkpt><trkpt lat="40.06567944294396" lon="8.741097482216693"><ele>231.33333333333334</ele><time>2026-04-26T13:32:34.883Z</time></trkpt><trkpt lat="40.06556221263465" lon="8.740921769681558"><ele>230.0</ele><time>2026-04-26T13:32:35.883Z</time></trkpt><trkpt lat="40.06544467863872" lon="8.74073489780891"><ele>230.0</ele><time>2026-04-26T13:32:36.883Z</time></trkpt><trkpt lat="40.065314354080144" lon="8.740504100720328"><ele>230.0</ele><time>2026-04-26T13:32:37.883Z</time></trkpt><trkpt lat="40.06518707984705" lon="8.740302306037373"><ele>230.0</ele><time>2026-04-26T13:32:38.883Z</time></trkpt><trkpt lat="40.06506234991759" lon="8.74010849991879"><ele>228.0</ele><time>2026-04-26T13:32:39.883Z</time></trkpt><trkpt lat="40.06493581521365" lon="8.739917768870152"><ele>226.0</ele><time>2026-04-26T13:32:40.883Z</time></trkpt><trkpt lat="40.06481449626867" lon="8.739726253621106"><ele>224.0</ele><time>2026-04-26T13:32:41.883Z</time></trkpt><trkpt lat="40.06469205516588" lon="8.739536597547007"><ele>224.66666666666669</ele><time>2026-04-26T13:32:42.883Z</time></trkpt><trkpt lat="40.064571281774796" lon="8.73934820400609"><ele>225.33333333333331</ele><time>2026-04-26T13:32:43.883Z</time></trkpt><trkpt lat="40.0644519739445" lon="8.739161443954137"><ele>226.0</ele><time>2026-04-26T13:32:44.883Z</time></trkpt><trkpt lat="40.06434187767799" lon="8.738981386381328"><ele>226.0</ele><time>2026-04-26T13:32:45.883Z</time></trkpt><trkpt lat="40.06423430420038" lon="8.738799216976"><ele>226.0</ele><time>2026-04-26T13:32:46.883Z</time></trkpt><trkpt lat="40.06413531261548" lon="8.738616226592486"><ele>226.0</ele><time>2026-04-26T13:32:47.883Z</time></trkpt><trkpt lat="40.06404166947988" lon="8.738422716269302"><ele>222.66666666666666</ele><time>2026-04-26T13:32:48.883Z</time></trkpt><trkpt lat="40.06395225413123" lon="8.738230996234734"><ele>219.33333333333331</ele><time>2026-04-26T13:32:49.883Z</time></trkpt><trkpt lat="40.06386788638902" lon="8.738038827895876"><ele>216.0</ele><time>2026-04-26T13:32:50.883Z</time></trkpt><trkpt lat="40.063787124273" lon="8.737840220040388"><ele>218.0</ele><time>2026-04-26T13:32:51.883Z</time></trkpt><trkpt lat="40.06371167891042" lon="8.737637672142824"><ele>220.0</ele><time>2026-04-26T13:32:52.883Z</time></trkpt><trkpt lat="40.06364315473952" lon="8.737432733739164"><ele>222.0</ele><time>2026-04-26T13:32:53.883Z</time></trkpt><trkpt lat="40.06357812348824" lon="8.737226091613698"><ele>222.0</ele><time>2026-04-26T13:32:54.883Z</time></trkpt><trkpt lat="40.063518589852364" lon="8.737019285583242"><ele>222.0</ele><time>2026-04-26T13:32:55.883Z</time></trkpt><trkpt lat="40.06346127159174" lon="8.736805586991405"><ele>222.0</ele><time>2026-04-26T13:32:56.883Z</time></trkpt><trkpt lat="40.06340674951823" lon="8.73659227775903"><ele>222.0</ele><time>2026-04-26T13:32:57.883Z</time></trkpt><trkpt lat="40.06335319069766" lon="8.736371312296491"><ele>222.0</ele><time>2026-04-26T13:32:58.883Z</time></trkpt><trkpt lat="40.0632984504461" lon="8.736149885143062"><ele>222.0</ele><time>2026-04-26T13:32:59.883Z</time></trkpt><trkpt lat="40.06324204436361" lon="8.73592797461897"><ele>222.0</ele><time>2026-04-26T13:33:00.883Z</time></trkpt><trkpt lat="40.063183932537015" lon="8.735701557897572"><ele>222.0</ele><time>2026-04-26T13:33:01.883Z</time></trkpt><trkpt lat="40.06312841264479" lon="8.735477037064554"><ele>222.0</ele><time>2026-04-26T13:33:02.883Z</time></trkpt><trkpt lat="40.063074142205956" lon="8.735254557983938"><ele>222.0</ele><time>2026-04-26T13:33:03.883Z</time></trkpt><trkpt lat="40.06301980936647" lon="8.73503262210423"><ele>222.0</ele><time>2026-04-26T13:33:04.883Z</time></trkpt><trkpt lat="40.062962457316985" lon="8.73481543634198"><ele>222.0</ele><time>2026-04-26T13:33:05.883Z</time></trkpt><trkpt lat="40.06290810442579" lon="8.734592797126956"><ele>221.0</ele><time>2026-04-26T13:33:06.883Z</time></trkpt><trkpt lat="40.06285129845792" lon="8.734368680381381"><ele>220.0</ele><time>2026-04-26T13:33:07.883Z</time></trkpt><trkpt lat="40.06279555264647" lon="8.734147885151764"><ele>219.0</ele><time>2026-04-26T13:33:08.883Z</time></trkpt><trkpt lat="40.06273750006325" lon="8.73392736175135"><ele>219.0</ele><time>2026-04-26T13:33:09.883Z</time></trkpt><trkpt lat="40.0626770968407" lon="8.733702228202272"><ele>219.0</ele><time>2026-04-26T13:33:10.883Z</time></trkpt><trkpt lat="40.062619453635236" lon="8.733474525412538"><ele>219.0</ele><time>2026-04-26T13:33:11.883Z</time></trkpt><trkpt lat="40.06256267698466" lon="8.733245044712607"><ele>218.33333333333331</ele><time>2026-04-26T13:33:12.883Z</time></trkpt><trkpt lat="40.06250726307648" lon="8.733017302135806"><ele>217.66666666666666</ele><time>2026-04-26T13:33:13.883Z</time></trkpt><trkpt lat="40.062448755962905" lon="8.732787585995615"><ele>217.0</ele><time>2026-04-26T13:33:14.883Z</time></trkpt><trkpt lat="40.0623928410765" lon="8.732561581928978"><ele>215.66666666666666</ele><time>2026-04-26T13:33:15.883Z</time></trkpt><trkpt lat="40.06233182825753" lon="8.732337953416389"><ele>214.33333333333331</ele><time>2026-04-26T13:33:16.883Z</time></trkpt><trkpt lat="40.06227335991961" lon="8.732113157349804"><ele>213.0</ele><time>2026-04-26T13:33:17.883Z</time></trkpt><trkpt lat="40.06221361069435" lon="8.731889266802886"><ele>213.0</ele><time>2026-04-26T13:33:18.883Z</time></trkpt><trkpt lat="40.06215959116323" lon="8.731665292396569"><ele>213.0</ele><time>2026-04-26T13:33:19.883Z</time></trkpt><trkpt lat="40.06210503193354" lon="8.731442725687725"><ele>213.0</ele><time>2026-04-26T13:33:20.883Z</time></trkpt><trkpt lat="40.06204684512192" lon="8.731212911474879"><ele>212.33333333333331</ele><time>2026-04-26T13:33:21.883Z</time></trkpt><trkpt lat="40.06198944494804" lon="8.730984623886657"><ele>211.66666666666666</ele><time>2026-04-26T13:33:22.883Z</time></trkpt><trkpt lat="40.06193588640547" lon="8.7307570860337"><ele>211.0</ele><time>2026-04-26T13:33:23.883Z</time></trkpt><trkpt lat="40.061878184677546" lon="8.730527532170235"><ele>211.0</ele><time>2026-04-26T13:33:24.883Z</time></trkpt><trkpt lat="40.06182069181961" lon="8.730302951362559"><ele>211.0</ele><time>2026-04-26T13:33:25.883Z</time></trkpt><trkpt lat="40.06176092549592" lon="8.730076461786616"><ele>211.0</ele><time>2026-04-26T13:33:26.883Z</time></trkpt><trkpt lat="40.06169941749712" lon="8.729851970556531"><ele>210.33333333333331</ele><time>2026-04-26T13:33:27.883Z</time></trkpt><trkpt lat="40.06164536618942" lon="8.729630603038075"><ele>209.66666666666669</ele><time>2026-04-26T13:33:28.883Z</time></trkpt><trkpt lat="40.0615902768353" lon="8.729410086490091"><ele>209.0</ele><time>2026-04-26T13:33:29.883Z</time></trkpt><trkpt lat="40.06153621000779" lon="8.729188887826412"><ele>207.66666666666669</ele><time>2026-04-26T13:33:30.883Z</time></trkpt><trkpt lat="40.06148093711503" lon="8.728963011763302"><ele>206.33333333333331</ele><time>2026-04-26T13:33:31.883Z</time></trkpt><trkpt lat="40.0614253822759" lon="8.72873960001869"><ele>205.0</ele><time>2026-04-26T13:33:32.883Z</time></trkpt><trkpt lat="40.061368196984404" lon="8.728519825267513"><ele>203.0</ele><time>2026-04-26T13:33:33.883Z</time></trkpt><trkpt lat="40.061312212848044" lon="8.728302010310086"><ele>201.0</ele><time>2026-04-26T13:33:34.883Z</time></trkpt><trkpt lat="40.06125599283495" lon="8.728085249712782"><ele>199.0</ele><time>2026-04-26T13:33:35.883Z</time></trkpt><trkpt lat="40.06119800625604" lon="8.72786712519563"><ele>198.33333333333331</ele><time>2026-04-26T13:33:36.883Z</time></trkpt><trkpt lat="40.06113886034035" lon="8.727646903554065"><ele>197.66666666666669</ele><time>2026-04-26T13:33:37.883Z</time></trkpt><trkpt lat="40.06108202037823" lon="8.72742309379993"><ele>197.0</ele><time>2026-04-26T13:33:38.883Z</time></trkpt><trkpt lat="40.0610259414026" lon="8.727199293952536"><ele>197.0</ele><time>2026-04-26T13:33:39.883Z</time></trkpt><trkpt lat="40.06096763078682" lon="8.726976427925935"><ele>197.0</ele><time>2026-04-26T13:33:40.883Z</time></trkpt><trkpt lat="40.060909172640564" lon="8.726748809113818"><ele>197.0</ele><time>2026-04-26T13:33:41.883Z</time></trkpt><trkpt lat="40.0608531307559" lon="8.726518236447207"><ele>198.33333333333334</ele><time>2026-04-26T13:33:42.883Z</time></trkpt><trkpt lat="40.060796344928846" lon="8.72628643786677"><ele>199.66666666666669</ele><time>2026-04-26T13:33:43.883Z</time></trkpt><trkpt lat="40.060739436897876" lon="8.726056605429381"><ele>201.0</ele><time>2026-04-26T13:33:44.883Z</time></trkpt><trkpt lat="40.06068105055761" lon="8.725824205420434"><ele>201.0</ele><time>2026-04-26T13:33:45.883Z</time></trkpt><trkpt lat="40.06062435801152" lon="8.725590875790974"><ele>201.0</ele><time>2026-04-26T13:33:46.883Z</time></trkpt><trkpt lat="40.060569047561266" lon="8.72536115802218"><ele>201.0</ele><time>2026-04-26T13:33:47.883Z</time></trkpt><trkpt lat="40.060510395951745" lon="8.72513025673855"><ele>201.66666666666669</ele><time>2026-04-26T13:33:48.883Z</time></trkpt><trkpt lat="40.06045232804137" lon="8.724898282569397"><ele>202.33333333333334</ele><time>2026-04-26T13:33:49.883Z</time></trkpt><trkpt lat="40.06039118751711" lon="8.724670307790188"><ele>203.0</ele><time>2026-04-26T13:33:50.883Z</time></trkpt><trkpt lat="40.0603282616876" lon="8.724435298318664"><ele>202.66666666666669</ele><time>2026-04-26T13:33:51.883Z</time></trkpt><trkpt lat="40.06027266573565" lon="8.724221328354801"><ele>202.33333333333331</ele><time>2026-04-26T13:33:52.883Z</time></trkpt><trkpt lat="40.06021771508602" lon="8.723997954491917"><ele>202.0</ele><time>2026-04-26T13:33:53.883Z</time></trkpt><trkpt lat="40.06015834473821" lon="8.723773126015775"><ele>201.33333333333331</ele><time>2026-04-26T13:33:54.883Z</time></trkpt><trkpt lat="40.06010004985036" lon="8.72354651271816"><ele>200.66666666666669</ele><time>2026-04-26T13:33:55.883Z</time></trkpt><trkpt lat="40.060042073799245" lon="8.723320161739874"><ele>200.0</ele><time>2026-04-26T13:33:56.883Z</time></trkpt><trkpt lat="40.0599851900942" lon="8.72308920275178"><ele>200.0</ele><time>2026-04-26T13:33:57.883Z</time></trkpt><trkpt lat="40.05992473774328" lon="8.722854358206458"><ele>200.0</ele><time>2026-04-26T13:33:58.883Z</time></trkpt><trkpt lat="40.05986584158313" lon="8.722620802157373"><ele>200.0</ele><time>2026-04-26T13:33:59.883Z</time></trkpt><trkpt lat="40.059806900132045" lon="8.722385598594068"><ele>199.33333333333334</ele><time>2026-04-26T13:34:00.883Z</time></trkpt><trkpt lat="40.059748580053736" lon="8.722150376304347"><ele>198.66666666666669</ele><time>2026-04-26T13:34:01.883Z</time></trkpt><trkpt lat="40.05968997294483" lon="8.721918912979195"><ele>198.0</ele><time>2026-04-26T13:34:02.883Z</time></trkpt><trkpt lat="40.05963231491807" lon="8.721688846894672"><ele>197.33333333333331</ele><time>2026-04-26T13:34:03.883Z</time></trkpt><trkpt lat="40.059574850792025" lon="8.721455279368197"><ele>196.66666666666666</ele><time>2026-04-26T13:34:04.883Z</time></trkpt><trkpt lat="40.059515179103876" lon="8.721229878868986"><ele>196.0</ele><time>2026-04-26T13:34:05.883Z</time></trkpt><trkpt lat="40.05945625484656" lon="8.721004472309595"><ele>195.33333333333331</ele><time>2026-04-26T13:34:06.883Z</time></trkpt><trkpt lat="40.05939925415337" lon="8.720782212604448"><ele>194.66666666666669</ele><time>2026-04-26T13:34:07.882Z</time></trkpt><trkpt lat="40.05933216817395" lon="8.720561116125399"><ele>194.0</ele><time>2026-04-26T13:34:08.882Z</time></trkpt><trkpt lat="40.059266249118494" lon="8.72034843159468"><ele>193.0</ele><time>2026-04-26T13:34:09.882Z</time></trkpt><trkpt lat="40.059195880884225" lon="8.720142513413201"><ele>192.0</ele><time>2026-04-26T13:34:10.882Z</time></trkpt><trkpt lat="40.05911243581393" lon="8.719943032539295"><ele>191.0</ele><time>2026-04-26T13:34:11.882Z</time></trkpt><trkpt lat="40.05901808370625" lon="8.71975095908954"><ele>191.0</ele><time>2026-04-26T13:34:12.882Z</time></trkpt><trkpt lat="40.05892262684667" lon="8.71956090712616"><ele>191.0</ele><time>2026-04-26T13:34:13.883Z</time></trkpt><trkpt lat="40.05882589030339" lon="8.71936779311359"><ele>191.0</ele><time>2026-04-26T13:34:14.882Z</time></trkpt><trkpt lat="40.05872245723376" lon="8.719174576528008"><ele>189.0</ele><time>2026-04-26T13:34:15.882Z</time></trkpt><trkpt lat="40.058611906867675" lon="8.718989407696327"><ele>187.0</ele><time>2026-04-26T13:34:16.882Z</time></trkpt><trkpt lat="40.0584935574948" lon="8.718803335109667"><ele>185.0</ele><time>2026-04-26T13:34:17.882Z</time></trkpt><trkpt lat="40.058368971984706" lon="8.71862255886"><ele>183.66666666666666</ele><time>2026-04-26T13:34:18.882Z</time></trkpt><trkpt lat="40.05824070433584" lon="8.718448734037093"><ele>182.33333333333334</ele><time>2026-04-26T13:34:19.882Z</time></trkpt><trkpt lat="40.05811014891405" lon="8.718278984496882"><ele>181.0</ele><time>2026-04-26T13:34:20.882Z</time></trkpt><trkpt lat="40.057975261580815" lon="8.71811671653882"><ele>181.0</ele><time>2026-04-26T13:34:21.882Z</time></trkpt><trkpt lat="40.05783670624612" lon="8.717955897168519"><ele>181.0</ele><time>2026-04-26T13:34:22.882Z</time></trkpt><trkpt lat="40.05769928854575" lon="8.717797141258677"><ele>181.0</ele><time>2026-04-26T13:34:23.882Z</time></trkpt><trkpt lat="40.057559862110104" lon="8.717639605699357"><ele>179.33333333333334</ele><time>2026-04-26T13:34:24.882Z</time></trkpt><trkpt lat="40.057421775835" lon="8.717478116736844"><ele>177.66666666666666</ele><time>2026-04-26T13:34:25.882Z</time></trkpt><trkpt lat="40.05728717687732" lon="8.717323225537973"><ele>176.0</ele><time>2026-04-26T13:34:26.882Z</time></trkpt><trkpt lat="40.05714909116769" lon="8.717163960104099"><ele>176.0</ele><time>2026-04-26T13:34:27.882Z</time></trkpt><trkpt lat="40.0570106999131" lon="8.717007026764493"><ele>176.0</ele><time>2026-04-26T13:34:28.882Z</time></trkpt><trkpt lat="40.05687165416249" lon="8.716846808572821"><ele>176.0</ele><time>2026-04-26T13:34:29.882Z</time></trkpt><trkpt lat="40.056733918473455" lon="8.716689196031856"><ele>175.0</ele><time>2026-04-26T13:34:30.882Z</time></trkpt><trkpt lat="40.05659377817454" lon="8.716527351490113"><ele>174.0</ele><time>2026-04-26T13:34:31.882Z</time></trkpt><trkpt lat="40.05645622613911" lon="8.716366037485539"><ele>173.0</ele><time>2026-04-26T13:34:32.882Z</time></trkpt><trkpt lat="40.056318346509734" lon="8.716209733408329"><ele>169.33333333333331</ele><time>2026-04-26T13:34:33.882Z</time></trkpt><trkpt lat="40.05617909736197" lon="8.71604961180665"><ele>165.66666666666666</ele><time>2026-04-26T13:34:34.882Z</time></trkpt><trkpt lat="40.05604248279143" lon="8.715890582528694"><ele>162.0</ele><time>2026-04-26T13:34:35.882Z</time></trkpt><trkpt lat="40.05590552381475" lon="8.715731799079917"><ele>167.0</ele><time>2026-04-26T13:34:36.882Z</time></trkpt><trkpt lat="40.05576768935568" lon="8.715574854684595"><ele>172.0</ele><time>2026-04-26T13:34:37.882Z</time></trkpt><trkpt lat="40.05563153491012" lon="8.715417136972135"><ele>177.0</ele><time>2026-04-26T13:34:38.882Z</time></trkpt><trkpt lat="40.05550264280859" lon="8.715260723909418"><ele>172.33333333333334</ele><time>2026-04-26T13:34:39.882Z</time></trkpt><trkpt lat="40.055370211253425" lon="8.71510516838901"><ele>167.66666666666669</ele><time>2026-04-26T13:34:40.882Z</time></trkpt><trkpt lat="40.05523607604741" lon="8.714950943309422"><ele>163.0</ele><time>2026-04-26T13:34:41.882Z</time></trkpt><trkpt lat="40.055105315537816" lon="8.714792808878439"><ele>163.0</ele><time>2026-04-26T13:34:42.882Z</time></trkpt><trkpt lat="40.054976916631425" lon="8.71463775883399"><ele>163.0</ele><time>2026-04-26T13:34:43.882Z</time></trkpt><trkpt lat="40.05485294502707" lon="8.71447958069251"><ele>163.0</ele><time>2026-04-26T13:34:44.882Z</time></trkpt><trkpt lat="40.0547314680544" lon="8.714316481446977"><ele>162.66666666666669</ele><time>2026-04-26T13:34:45.882Z</time></trkpt><trkpt lat="40.05461088665449" lon="8.714150221880292"><ele>162.33333333333334</ele><time>2026-04-26T13:34:46.882Z</time></trkpt><trkpt lat="40.054491396096154" lon="8.713977452257883"><ele>162.0</ele><time>2026-04-26T13:34:47.882Z</time></trkpt><trkpt lat="40.05437132027595" lon="8.713798865954683"><ele>162.0</ele><time>2026-04-26T13:34:48.882Z</time></trkpt><trkpt lat="40.05425022993581" lon="8.713619221082203"><ele>162.0</ele><time>2026-04-26T13:34:49.882Z</time></trkpt><trkpt lat="40.05412932075655" lon="8.713427478790855"><ele>162.0</ele><time>2026-04-26T13:34:50.882Z</time></trkpt><trkpt lat="40.054012779678445" lon="8.71323193643483"><ele>163.66666666666666</ele><time>2026-04-26T13:34:51.882Z</time></trkpt><trkpt lat="40.05389938592195" lon="8.713037459866314"><ele>165.33333333333331</ele><time>2026-04-26T13:34:52.882Z</time></trkpt><trkpt lat="40.05378377484823" lon="8.712839537464252"><ele>167.0</ele><time>2026-04-26T13:34:53.882Z</time></trkpt><trkpt lat="40.053666132629616" lon="8.712641337349378"><ele>161.66666666666666</ele><time>2026-04-26T13:34:54.882Z</time></trkpt><trkpt lat="40.053552298893806" lon="8.712444425032798"><ele>156.33333333333334</ele><time>2026-04-26T13:34:55.882Z</time></trkpt><trkpt lat="40.05343844535236" lon="8.71224742611503"><ele>151.0</ele><time>2026-04-26T13:34:56.882Z</time></trkpt><trkpt lat="40.05332382999868" lon="8.712056145244409"><ele>154.0</ele><time>2026-04-26T13:34:57.882Z</time></trkpt><trkpt lat="40.05321168002476" lon="8.711862067416865"><ele>157.0</ele><time>2026-04-26T13:34:58.882Z</time></trkpt><trkpt lat="40.05309865443003" lon="8.711668201196723"><ele>160.0</ele><time>2026-04-26T13:34:59.882Z</time></trkpt><trkpt lat="40.05298448284234" lon="8.711479792250172"><ele>160.0</ele><time>2026-04-26T13:35:00.882Z</time></trkpt><trkpt lat="40.052874752234366" lon="8.711287982823244"><ele>160.0</ele><time>2026-04-26T13:35:01.882Z</time></trkpt><trkpt lat="40.052764040726" lon="8.711095287548837"><ele>160.0</ele><time>2026-04-26T13:35:02.882Z</time></trkpt><trkpt lat="40.05264919230381" lon="8.710905849324906"><ele>157.0</ele><time>2026-04-26T13:35:03.882Z</time></trkpt><trkpt lat="40.05253445313346" lon="8.710713760959699"><ele>154.0</ele><time>2026-04-26T13:35:04.882Z</time></trkpt><trkpt lat="40.05242150777453" lon="8.71052371273056"><ele>151.0</ele><time>2026-04-26T13:35:05.882Z</time></trkpt><trkpt lat="40.052307559511064" lon="8.710335372750821"><ele>146.33333333333334</ele><time>2026-04-26T13:35:06.882Z</time></trkpt><trkpt lat="40.05219483821813" lon="8.710150723271415"><ele>141.66666666666666</ele><time>2026-04-26T13:35:07.882Z</time></trkpt><trkpt lat="40.05208093173866" lon="8.709976831893322"><ele>137.0</ele><time>2026-04-26T13:35:08.882Z</time></trkpt><trkpt lat="40.05195671699272" lon="8.709800393083004"><ele>137.0</ele><time>2026-04-26T13:35:09.882Z</time></trkpt><trkpt lat="40.05182704398929" lon="8.70963086425899"><ele>137.0</ele><time>2026-04-26T13:35:10.882Z</time></trkpt><trkpt lat="40.05168455127133" lon="8.70947433163907"><ele>137.0</ele><time>2026-04-26T13:35:11.882Z</time></trkpt><trkpt lat="40.05154017446207" lon="8.709324987447294"><ele>135.0</ele><time>2026-04-26T13:35:12.882Z</time></trkpt><trkpt lat="40.05139028425402" lon="8.70918101279989"><ele>133.0</ele><time>2026-04-26T13:35:13.882Z</time></trkpt><trkpt lat="40.05123544861492" lon="8.709051362975513"><ele>131.0</ele><time>2026-04-26T13:35:14.882Z</time></trkpt><trkpt lat="40.05107800169283" lon="8.708923795045491"><ele>131.0</ele><time>2026-04-26T13:35:15.882Z</time></trkpt><trkpt lat="40.05091287085961" lon="8.708813783683732"><ele>131.0</ele><time>2026-04-26T13:35:16.882Z</time></trkpt><trkpt lat="40.050740247230856" lon="8.708716635080457"><ele>131.0</ele><time>2026-04-26T13:35:17.882Z</time></trkpt><trkpt lat="40.050568780394535" lon="8.708630616798727"><ele>129.66666666666666</ele><time>2026-04-26T13:35:18.882Z</time></trkpt><trkpt lat="40.05039749888095" lon="8.708560133692771"><ele>128.33333333333334</ele><time>2026-04-26T13:35:19.882Z</time></trkpt><trkpt lat="40.0502212187113" lon="8.708496638894339"><ele>127.0</ele><time>2026-04-26T13:35:20.882Z</time></trkpt><trkpt lat="40.05004435939802" lon="8.708443203610607"><ele>125.33333333333334</ele><time>2026-04-26T13:35:21.882Z</time></trkpt><trkpt lat="40.049864107717696" lon="8.70840136394646"><ele>123.66666666666666</ele><time>2026-04-26T13:35:22.882Z</time></trkpt><trkpt lat="40.04968075347529" lon="8.708371054376427"><ele>122.0</ele><time>2026-04-26T13:35:23.882Z</time></trkpt><trkpt lat="40.04949868105705" lon="8.708356288035688"><ele>122.0</ele><time>2026-04-26T13:35:24.882Z</time></trkpt><trkpt lat="40.0493172769533" lon="8.708356186699152"><ele>122.0</ele><time>2026-04-26T13:35:25.882Z</time></trkpt><trkpt lat="40.04913522351895" lon="8.708373372948799"><ele>122.0</ele><time>2026-04-26T13:35:26.882Z</time></trkpt><trkpt lat="40.048953441170546" lon="8.708399297964851"><ele>119.33333333333333</ele><time>2026-04-26T13:35:27.882Z</time></trkpt><trkpt lat="40.04877388279904" lon="8.708431007269954"><ele>116.66666666666666</ele><time>2026-04-26T13:35:28.882Z</time></trkpt><trkpt lat="40.04859621375349" lon="8.708477098790153"><ele>114.0</ele><time>2026-04-26T13:35:29.882Z</time></trkpt><trkpt lat="40.04842014374331" lon="8.70853381513814"><ele>118.66666666666666</ele><time>2026-04-26T13:35:30.882Z</time></trkpt><trkpt lat="40.048240588294476" lon="8.708591480980306"><ele>123.33333333333333</ele><time>2026-04-26T13:35:31.882Z</time></trkpt><trkpt lat="40.048057148062426" lon="8.708647752630975"><ele>128.0</ele><time>2026-04-26T13:35:32.882Z</time></trkpt><trkpt lat="40.047873124492604" lon="8.708696426574907"><ele>128.0</ele><time>2026-04-26T13:35:33.882Z</time></trkpt><trkpt lat="40.047688276875775" lon="8.708742653203867"><ele>128.0</ele><time>2026-04-26T13:35:34.882Z</time></trkpt><trkpt lat="40.047503255341994" lon="8.708789526527566"><ele>128.0</ele><time>2026-04-26T13:35:35.882Z</time></trkpt><trkpt lat="40.04732067669011" lon="8.70883647722446"><ele>125.0</ele><time>2026-04-26T13:35:36.882Z</time></trkpt><trkpt lat="40.04714175443272" lon="8.708882108275741"><ele>122.0</ele><time>2026-04-26T13:35:37.882Z</time></trkpt><trkpt lat="40.04696478443399" lon="8.708924837314633"><ele>119.0</ele><time>2026-04-26T13:35:38.882Z</time></trkpt><trkpt lat="40.046787328558224" lon="8.70895597034204"><ele>116.0</ele><time>2026-04-26T13:35:39.882Z</time></trkpt><trkpt lat="40.04660572021318" lon="8.708978114418871"><ele>113.0</ele><time>2026-04-26T13:35:40.882Z</time></trkpt><trkpt lat="40.046422082742254" lon="8.708990832859017"><ele>110.0</ele><time>2026-04-26T13:35:41.882Z</time></trkpt><trkpt lat="40.04623385222819" lon="8.709001825528729"><ele>110.0</ele><time>2026-04-26T13:35:42.882Z</time></trkpt><trkpt lat="40.046045842714214" lon="8.708995939164778"><ele>110.0</ele><time>2026-04-26T13:35:43.882Z</time></trkpt><trkpt lat="40.04585586377679" lon="8.708978750818396"><ele>110.0</ele><time>2026-04-26T13:35:44.882Z</time></trkpt><trkpt lat="40.04566670566852" lon="8.708950086695237"><ele>112.0</ele><time>2026-04-26T13:35:45.882Z</time></trkpt><trkpt lat="40.04548242665102" lon="8.708906054344833"><ele>114.0</ele><time>2026-04-26T13:35:46.882Z</time></trkpt><trkpt lat="40.04529986212482" lon="8.70884712963171"><ele>116.0</ele><time>2026-04-26T13:35:47.882Z</time></trkpt><trkpt lat="40.04512379836668" lon="8.708776373199441"><ele>111.33333333333333</ele><time>2026-04-26T13:35:48.882Z</time></trkpt><trkpt lat="40.04494930564712" lon="8.708697595112712"><ele>106.66666666666666</ele><time>2026-04-26T13:35:49.882Z</time></trkpt><trkpt lat="40.04478111151926" lon="8.708605545669448"><ele>102.0</ele><time>2026-04-26T13:35:50.882Z</time></trkpt><trkpt lat="40.044617397417824" lon="8.708502948749338"><ele>102.0</ele><time>2026-04-26T13:35:51.882Z</time></trkpt><trkpt lat="40.04445570794475" lon="8.708390033684342"><ele>102.0</ele><time>2026-04-26T13:35:52.882Z</time></trkpt><trkpt lat="40.04429958613076" lon="8.70826943795075"><ele>102.0</ele><time>2026-04-26T13:35:53.882Z</time></trkpt><trkpt lat="40.044149309702696" lon="8.708133648795416"><ele>103.33333333333334</ele><time>2026-04-26T13:35:54.882Z</time></trkpt><trkpt lat="40.04400317793667" lon="8.707991921389132"><ele>104.66666666666667</ele><time>2026-04-26T13:35:55.882Z</time></trkpt><trkpt lat="40.0438618278793" lon="8.707839927910383"><ele>106.0</ele><time>2026-04-26T13:35:56.882Z</time></trkpt><trkpt lat="40.04372723209367" lon="8.707681018534556"><ele>100.66666666666667</ele><time>2026-04-26T13:35:57.882Z</time></trkpt><trkpt lat="40.043597725243146" lon="8.707516449622537"><ele>95.33333333333334</ele><time>2026-04-26T13:35:58.882Z</time></trkpt><trkpt lat="40.043474695897004" lon="8.707357838066184"><ele>90.0</ele><time>2026-04-26T13:35:59.882Z</time></trkpt><trkpt lat="40.04335682956653" lon="8.707204789021521"><ele>89.33333333333333</ele><time>2026-04-26T13:36:00.882Z</time></trkpt><trkpt lat="40.043229765843975" lon="8.707053845312348"><ele>88.66666666666666</ele><time>2026-04-26T13:36:01.882Z</time></trkpt><trkpt lat="40.04310160977256" lon="8.706895187852295"><ele>88.0</ele><time>2026-04-26T13:36:02.882Z</time></trkpt><trkpt lat="40.0429710987416" lon="8.706731730888485"><ele>88.0</ele><time>2026-04-26T13:36:03.882Z</time></trkpt><trkpt lat="40.04283894462002" lon="8.70656540941617"><ele>88.0</ele><time>2026-04-26T13:36:04.882Z</time></trkpt><trkpt lat="40.042706789129035" lon="8.706390517154613"><ele>88.0</ele><time>2026-04-26T13:36:05.883Z</time></trkpt><trkpt lat="40.04257097555447" lon="8.70621164020648"><ele>89.0</ele><time>2026-04-26T13:36:06.883Z</time></trkpt><trkpt lat="40.04243246767463" lon="8.706030700205526"><ele>90.0</ele><time>2026-04-26T13:36:07.883Z</time></trkpt><trkpt lat="40.042294178256526" lon="8.705844117872692"><ele>91.0</ele><time>2026-04-26T13:36:08.883Z</time></trkpt><trkpt lat="40.04216216781428" lon="8.705652422074767"><ele>91.0</ele><time>2026-04-26T13:36:09.883Z</time></trkpt><trkpt lat="40.042032627336205" lon="8.705449297696081"><ele>91.0</ele><time>2026-04-26T13:36:10.883Z</time></trkpt><trkpt lat="40.04191457544876" lon="8.705237451195307"><ele>91.0</ele><time>2026-04-26T13:36:11.883Z</time></trkpt><trkpt lat="40.04180682588096" lon="8.705015994261077"><ele>90.33333333333333</ele><time>2026-04-26T13:36:12.883Z</time></trkpt><trkpt lat="40.04170577049465" lon="8.704789731143094"><ele>89.66666666666667</ele><time>2026-04-26T13:36:13.882Z</time></trkpt><trkpt lat="40.041618135636554" lon="8.70455802442862"><ele>89.0</ele><time>2026-04-26T13:36:14.882Z</time></trkpt><trkpt lat="40.041540625889695" lon="8.704319136019993"><ele>94.33333333333334</ele><time>2026-04-26T13:36:15.882Z</time></trkpt><trkpt lat="40.04146880159615" lon="8.704079546648375"><ele>99.66666666666667</ele><time>2026-04-26T13:36:16.882Z</time></trkpt><trkpt lat="40.041407486949566" lon="8.703832157275114"><ele>105.0</ele><time>2026-04-26T13:36:17.882Z</time></trkpt><trkpt lat="40.04135491398574" lon="8.703588292546778"><ele>103.33333333333334</ele><time>2026-04-26T13:36:18.882Z</time></trkpt><trkpt lat="40.04131316930724" lon="8.703333487592047"><ele>101.66666666666667</ele><time>2026-04-26T13:36:19.881Z</time></trkpt><trkpt lat="40.04127959603338" lon="8.703076086296969"><ele>100.0</ele><time>2026-04-26T13:36:20.881Z</time></trkpt><trkpt lat="40.04124776150299" lon="8.702817071004539"><ele>97.66666666666667</ele><time>2026-04-26T13:36:21.881Z</time></trkpt><trkpt lat="40.04121467043961" lon="8.702557458415697"><ele>95.33333333333334</ele><time>2026-04-26T13:36:22.882Z</time></trkpt><trkpt lat="40.0411822714679" lon="8.70229873466654"><ele>93.0</ele><time>2026-04-26T13:36:23.881Z</time></trkpt><trkpt lat="40.04115149251364" lon="8.702038627797853"><ele>91.0</ele><time>2026-04-26T13:36:24.881Z</time></trkpt><trkpt lat="40.04112251802602" lon="8.701779341798767"><ele>89.0</ele><time>2026-04-26T13:36:25.882Z</time></trkpt><trkpt lat="40.041088988613346" lon="8.701520626033252"><ele>87.0</ele><time>2026-04-26T13:36:26.882Z</time></trkpt><trkpt lat="40.041055940774235" lon="8.701263074948907"><ele>85.0</ele><time>2026-04-26T13:36:27.882Z</time></trkpt><trkpt lat="40.04102075143628" lon="8.701006330726322"><ele>83.0</ele><time>2026-04-26T13:36:28.882Z</time></trkpt><trkpt lat="40.04098680395018" lon="8.7007488044256"><ele>81.0</ele><time>2026-04-26T13:36:29.882Z</time></trkpt><trkpt lat="40.04095122209104" lon="8.700492984885322"><ele>80.66666666666667</ele><time>2026-04-26T13:36:30.882Z</time></trkpt><trkpt lat="40.040915321329074" lon="8.700236641487503"><ele>80.33333333333334</ele><time>2026-04-26T13:36:31.882Z</time></trkpt><trkpt lat="40.04088074243197" lon="8.699982187541686"><ele>80.0</ele><time>2026-04-26T13:36:32.882Z</time></trkpt><trkpt lat="40.04084699497659" lon="8.69972811129583"><ele>80.0</ele><time>2026-04-26T13:36:33.882Z</time></trkpt><trkpt lat="40.040812250260764" lon="8.699473517818065"><ele>80.0</ele><time>2026-04-26T13:36:34.882Z</time></trkpt><trkpt lat="40.04077752016643" lon="8.699217751760191"><ele>80.0</ele><time>2026-04-26T13:36:35.882Z</time></trkpt><trkpt lat="40.04074282626684" lon="8.698958757739561"><ele>84.66666666666667</ele><time>2026-04-26T13:36:36.882Z</time></trkpt><trkpt lat="40.040707931608786" lon="8.69869865183528"><ele>89.33333333333333</ele><time>2026-04-26T13:36:37.882Z</time></trkpt><trkpt lat="40.04067305681965" lon="8.69843823992541"><ele>94.0</ele><time>2026-04-26T13:36:38.882Z</time></trkpt><trkpt lat="40.04063727270807" lon="8.698177280157527"><ele>95.0</ele><time>2026-04-26T13:36:39.882Z</time></trkpt><trkpt lat="40.040600624406565" lon="8.697919262977054"><ele>96.0</ele><time>2026-04-26T13:36:40.882Z</time></trkpt><trkpt lat="40.04056131886796" lon="8.697661614284746"><ele>97.0</ele><time>2026-04-26T13:36:41.882Z</time></trkpt><trkpt lat="40.040517621684224" lon="8.697407088688113"><ele>97.33333333333334</ele><time>2026-04-26T13:36:42.882Z</time></trkpt><trkpt lat="40.040464491558126" lon="8.697155488853026"><ele>97.66666666666666</ele><time>2026-04-26T13:36:43.882Z</time></trkpt><trkpt lat="40.04040274293699" lon="8.696902036274988"><ele>98.0</ele><time>2026-04-26T13:36:44.882Z</time></trkpt><trkpt lat="40.04033342257641" lon="8.696655711628424"><ele>98.0</ele><time>2026-04-26T13:36:45.882Z</time></trkpt><trkpt lat="40.040265336231144" lon="8.696410121129126"><ele>98.0</ele><time>2026-04-26T13:36:46.882Z</time></trkpt><trkpt lat="40.04019988687837" lon="8.696165651367876"><ele>98.0</ele><time>2026-04-26T13:36:47.882Z</time></trkpt><trkpt lat="40.04013569090266" lon="8.695922245706445"><ele>96.33333333333333</ele><time>2026-04-26T13:36:48.882Z</time></trkpt><trkpt lat="40.04007017386398" lon="8.695677688983677"><ele>94.66666666666666</ele><time>2026-04-26T13:36:49.882Z</time></trkpt><trkpt lat="40.0400064679782" lon="8.69543423211693"><ele>93.0</ele><time>2026-04-26T13:36:50.882Z</time></trkpt><trkpt lat="40.039944555394165" lon="8.695187481738788"><ele>96.33333333333334</ele><time>2026-04-26T13:36:51.882Z</time></trkpt><trkpt lat="40.03988160876072" lon="8.694939135318446"><ele>99.66666666666667</ele><time>2026-04-26T13:36:52.882Z</time></trkpt><trkpt lat="40.03981775436158" lon="8.694693405824019"><ele>103.0</ele><time>2026-04-26T13:36:53.882Z</time></trkpt><trkpt lat="40.03975387251261" lon="8.694448836962792"><ele>100.0</ele><time>2026-04-26T13:36:54.882Z</time></trkpt><trkpt lat="40.039691254303335" lon="8.694204692228558"><ele>97.0</ele><time>2026-04-26T13:36:55.882Z</time></trkpt><trkpt lat="40.039623652528526" lon="8.693966618302664"><ele>94.0</ele><time>2026-04-26T13:36:56.882Z</time></trkpt><trkpt lat="40.03955709836401" lon="8.693725559228954"><ele>91.66666666666666</ele><time>2026-04-26T13:36:57.882Z</time></trkpt><trkpt lat="40.039489430423366" lon="8.69348135441944"><ele>89.33333333333333</ele><time>2026-04-26T13:36:58.882Z</time></trkpt><trkpt lat="40.03942388685608" lon="8.693234774850868"><ele>87.0</ele><time>2026-04-26T13:36:59.882Z</time></trkpt><trkpt lat="40.03935730514955" lon="8.692981588589058"><ele>85.0</ele><time>2026-04-26T13:37:00.882Z</time></trkpt><trkpt lat="40.03928814479157" lon="8.692732267910689"><ele>83.0</ele><time>2026-04-26T13:37:01.882Z</time></trkpt><trkpt lat="40.03921799507404" lon="8.692480907851571"><ele>81.0</ele><time>2026-04-26T13:37:02.882Z</time></trkpt><trkpt lat="40.03915201890352" lon="8.692226162104769"><ele>81.66666666666667</ele><time>2026-04-26T13:37:03.882Z</time></trkpt><trkpt lat="40.03908544076756" lon="8.691978608261538"><ele>82.33333333333334</ele><time>2026-04-26T13:37:04.882Z</time></trkpt><trkpt lat="40.03902178711581" lon="8.691723375871028"><ele>83.0</ele><time>2026-04-26T13:37:05.882Z</time></trkpt><trkpt lat="40.038960964164424" lon="8.691465953840655"><ele>83.0</ele><time>2026-04-26T13:37:06.882Z</time></trkpt><trkpt lat="40.0388968979786" lon="8.691205677553343"><ele>83.0</ele><time>2026-04-26T13:37:07.882Z</time></trkpt><trkpt lat="40.03883141614809" lon="8.690941443333054"><ele>83.0</ele><time>2026-04-26T13:37:08.882Z</time></trkpt><trkpt lat="40.03876396526179" lon="8.690683247524142"><ele>83.0</ele><time>2026-04-26T13:37:09.882Z</time></trkpt><trkpt lat="40.03869670655291" lon="8.690424225393711"><ele>83.0</ele><time>2026-04-26T13:37:10.882Z</time></trkpt><trkpt lat="40.03862635236225" lon="8.690158038302505"><ele>83.0</ele><time>2026-04-26T13:37:11.882Z</time></trkpt><trkpt lat="40.03855361158469" lon="8.689891457401684"><ele>81.33333333333334</ele><time>2026-04-26T13:37:12.882Z</time></trkpt><trkpt lat="40.038479643433966" lon="8.689633438643385"><ele>79.66666666666667</ele><time>2026-04-26T13:37:13.882Z</time></trkpt><trkpt lat="40.03840613877549" lon="8.689381190281194"><ele>78.0</ele><time>2026-04-26T13:37:14.882Z</time></trkpt><trkpt lat="40.03833661120042" lon="8.68912729327861"><ele>77.0</ele><time>2026-04-26T13:37:15.882Z</time></trkpt><trkpt lat="40.03826886928939" lon="8.688867914002133"><ele>76.0</ele><time>2026-04-26T13:37:16.882Z</time></trkpt><trkpt lat="40.03819813849551" lon="8.688610479407917"><ele>75.0</ele><time>2026-04-26T13:37:17.882Z</time></trkpt><trkpt lat="40.038127565311704" lon="8.688352055475141"><ele>74.0</ele><time>2026-04-26T13:37:18.882Z</time></trkpt><trkpt lat="40.038057860080905" lon="8.68809184714499"><ele>73.0</ele><time>2026-04-26T13:37:19.882Z</time></trkpt><trkpt lat="40.037986830287565" lon="8.687832259183823"><ele>72.0</ele><time>2026-04-26T13:37:20.882Z</time></trkpt><trkpt lat="40.03791840763879" lon="8.68757353158402"><ele>71.66666666666667</ele><time>2026-04-26T13:37:21.882Z</time></trkpt><trkpt lat="40.03785122315986" lon="8.687315085191255"><ele>71.33333333333334</ele><time>2026-04-26T13:37:22.882Z</time></trkpt><trkpt lat="40.0377862117673" lon="8.687056562183203"><ele>71.0</ele><time>2026-04-26T13:37:23.882Z</time></trkpt><trkpt lat="40.037719292875515" lon="8.686798228466978"><ele>70.33333333333334</ele><time>2026-04-26T13:37:24.882Z</time></trkpt><trkpt lat="40.037651738145335" lon="8.68653414990222"><ele>69.66666666666667</ele><time>2026-04-26T13:37:25.882Z</time></trkpt><trkpt lat="40.03757985848349" lon="8.686270090767337"><ele>69.0</ele><time>2026-04-26T13:37:26.882Z</time></trkpt><trkpt lat="40.03750599422662" lon="8.686008962272268"><ele>69.33333333333333</ele><time>2026-04-26T13:37:27.882Z</time></trkpt><trkpt lat="40.03743265581304" lon="8.685741328307573"><ele>69.66666666666666</ele><time>2026-04-26T13:37:28.882Z</time></trkpt><trkpt lat="40.03736486559712" lon="8.685472471885381"><ele>70.0</ele><time>2026-04-26T13:37:29.882Z</time></trkpt><trkpt lat="40.03729544821333" lon="8.685199855796695"><ele>68.66666666666666</ele><time>2026-04-26T13:37:30.882Z</time></trkpt><trkpt lat="40.037222537729264" lon="8.684930077942536"><ele>67.33333333333333</ele><time>2026-04-26T13:37:31.882Z</time></trkpt><trkpt lat="40.03715301150067" lon="8.684664509003401"><ele>66.0</ele><time>2026-04-26T13:37:32.882Z</time></trkpt><trkpt lat="40.03708846139325" lon="8.684391540238575"><ele>66.0</ele><time>2026-04-26T13:37:33.882Z</time></trkpt><trkpt lat="40.037016176182625" lon="8.684114186143018"><ele>66.0</ele><time>2026-04-26T13:37:34.882Z</time></trkpt><trkpt lat="40.03694540498795" lon="8.683835507526465"><ele>66.0</ele><time>2026-04-26T13:37:35.882Z</time></trkpt><trkpt lat="40.03687234496976" lon="8.683529620018653"><ele>65.33333333333333</ele><time>2026-04-26T13:37:36.882Z</time></trkpt><trkpt lat="40.03680222780295" lon="8.683338305561087"><ele>64.66666666666666</ele><time>2026-04-26T13:37:37.882Z</time></trkpt><trkpt lat="40.036736489057255" lon="8.683090451622352"><ele>64.0</ele><time>2026-04-26T13:37:38.882Z</time></trkpt><trkpt lat="40.0366707596377" lon="8.682841574543271"><ele>63.666666666666664</ele><time>2026-04-26T13:37:39.882Z</time></trkpt><trkpt lat="40.036602801862095" lon="8.682601132175042"><ele>63.33333333333333</ele><time>2026-04-26T13:37:40.882Z</time></trkpt><trkpt lat="40.03653846041568" lon="8.682362001034937"><ele>63.0</ele><time>2026-04-26T13:37:41.882Z</time></trkpt><trkpt lat="40.036473840992414" lon="8.682118992843849"><ele>62.33333333333333</ele><time>2026-04-26T13:37:42.882Z</time></trkpt><trkpt lat="40.036407222608986" lon="8.681874236353242"><ele>61.666666666666664</ele><time>2026-04-26T13:37:43.882Z</time></trkpt><trkpt lat="40.03633855040415" lon="8.681621534658312"><ele>61.0</ele><time>2026-04-26T13:37:44.882Z</time></trkpt><trkpt lat="40.03626935678845" lon="8.681367005330328"><ele>61.0</ele><time>2026-04-26T13:37:45.882Z</time></trkpt><trkpt lat="40.03620043953664" lon="8.681104240942096"><ele>61.0</ele><time>2026-04-26T13:37:46.882Z</time></trkpt><trkpt lat="40.03613375687395" lon="8.680846564827227"><ele>61.0</ele><time>2026-04-26T13:37:47.882Z</time></trkpt><trkpt lat="40.03606556390412" lon="8.680589153713706"><ele>60.666666666666664</ele><time>2026-04-26T13:37:48.882Z</time></trkpt><trkpt lat="40.03599622753889" lon="8.680330767455956"><ele>60.33333333333333</ele><time>2026-04-26T13:37:49.882Z</time></trkpt><trkpt lat="40.03592388453279" lon="8.680061674527524"><ele>60.0</ele><time>2026-04-26T13:37:50.882Z</time></trkpt><trkpt lat="40.03585508226835" lon="8.67979572305755"><ele>60.0</ele><time>2026-04-26T13:37:51.882Z</time></trkpt><trkpt lat="40.03578656699744" lon="8.679527251365577"><ele>60.0</ele><time>2026-04-26T13:37:52.882Z</time></trkpt><trkpt lat="40.035717479570515" lon="8.679259148630313"><ele>60.0</ele><time>2026-04-26T13:37:53.882Z</time></trkpt><trkpt lat="40.03564508032979" lon="8.678994929137513"><ele>58.66666666666667</ele><time>2026-04-26T13:37:54.882Z</time></trkpt><trkpt lat="40.035573270213334" lon="8.678730263693117"><ele>57.333333333333336</ele><time>2026-04-26T13:37:55.882Z</time></trkpt><trkpt lat="40.03550282720381" lon="8.678475828294461"><ele>56.0</ele><time>2026-04-26T13:37:56.882Z</time></trkpt><trkpt lat="40.03543178477521" lon="8.678224767360502"><ele>55.333333333333336</ele><time>2026-04-26T13:37:57.882Z</time></trkpt><trkpt lat="40.035358032386966" lon="8.677982641069818"><ele>54.66666666666667</ele><time>2026-04-26T13:37:58.881Z</time></trkpt><trkpt lat="40.035280563355336" lon="8.677746353188818"><ele>54.0</ele><time>2026-04-26T13:37:59.879Z</time></trkpt><trkpt lat="40.035198776493324" lon="8.677509986818439"><ele>52.66666666666667</ele><time>2026-04-26T13:38:00.878Z</time></trkpt><trkpt lat="40.03510644786141" lon="8.677288313466201"><ele>51.333333333333336</ele><time>2026-04-26T13:38:01.877Z</time></trkpt><trkpt lat="40.03500255640804" lon="8.677069944075411"><ele>50.0</ele><time>2026-04-26T13:38:02.875Z</time></trkpt><trkpt lat="40.03489249371825" lon="8.676858593531662"><ele>50.0</ele><time>2026-04-26T13:38:03.874Z</time></trkpt><trkpt lat="40.03477040524579" lon="8.676649815601225"><ele>50.0</ele><time>2026-04-26T13:38:04.873Z</time></trkpt><trkpt lat="40.03464018017875" lon="8.676451162766316"><ele>50.0</ele><time>2026-04-26T13:38:05.872Z</time></trkpt><trkpt lat="40.03450309155819" lon="8.676258285072214"><ele>49.66666666666667</ele><time>2026-04-26T13:38:06.871Z</time></trkpt><trkpt lat="40.03435966814165" lon="8.67607129757874"><ele>49.33333333333333</ele><time>2026-04-26T13:38:07.87Z</time></trkpt><trkpt lat="40.034209127072856" lon="8.675892294891007"><ele>49.0</ele><time>2026-04-26T13:38:08.869Z</time></trkpt><trkpt lat="40.03405040732167" lon="8.675721681927104"><ele>49.0</ele><time>2026-04-26T13:38:09.868Z</time></trkpt><trkpt lat="40.03388647060054" lon="8.675564072880093"><ele>49.0</ele><time>2026-04-26T13:38:10.867Z</time></trkpt><trkpt lat="40.03371550310954" lon="8.675420108652958"><ele>49.0</ele><time>2026-04-26T13:38:11.867Z</time></trkpt><trkpt lat="40.033539179547034" lon="8.67528090535583"><ele>49.0</ele><time>2026-04-26T13:38:12.866Z</time></trkpt><trkpt lat="40.03336002428018" lon="8.675142021238186"><ele>49.0</ele><time>2026-04-26T13:38:13.865Z</time></trkpt><trkpt lat="40.03317981142098" lon="8.675002113167823"><ele>49.0</ele><time>2026-04-26T13:38:14.865Z</time></trkpt><trkpt lat="40.0329998960578" lon="8.674857978332037"><ele>49.0</ele><time>2026-04-26T13:38:15.864Z</time></trkpt><trkpt lat="40.03281754545936" lon="8.674710340919965"><ele>49.0</ele><time>2026-04-26T13:38:16.864Z</time></trkpt><trkpt lat="40.032637330900705" lon="8.674563790064894"><ele>49.0</ele><time>2026-04-26T13:38:17.863Z</time></trkpt><trkpt lat="40.03245792781437" lon="8.674418608927887"><ele>48.33333333333333</ele><time>2026-04-26T13:38:18.863Z</time></trkpt><trkpt lat="40.032279891766265" lon="8.674275988549956"><ele>47.666666666666664</ele><time>2026-04-26T13:38:19.861Z</time></trkpt><trkpt lat="40.03210164334573" lon="8.674138523511534"><ele>47.0</ele><time>2026-04-26T13:38:20.861Z</time></trkpt><trkpt lat="40.03192040934585" lon="8.673998811627797"><ele>47.0</ele><time>2026-04-26T13:38:21.861Z</time></trkpt><trkpt lat="40.03173411557469" lon="8.673860547781256"><ele>47.0</ele><time>2026-04-26T13:38:22.86Z</time></trkpt><trkpt lat="40.031550434311484" lon="8.673717261790872"><ele>47.0</ele><time>2026-04-26T13:38:23.859Z</time></trkpt><trkpt lat="40.03136826375198" lon="8.673569447142198"><ele>46.666666666666664</ele><time>2026-04-26T13:38:24.859Z</time></trkpt><trkpt lat="40.03118503217104" lon="8.673421885225356"><ele>46.333333333333336</ele><time>2026-04-26T13:38:25.859Z</time></trkpt><trkpt lat="40.03100169632916" lon="8.673272228540363"><ele>46.0</ele><time>2026-04-26T13:38:26.859Z</time></trkpt><trkpt lat="40.03081818271977" lon="8.673128243931329"><ele>46.333333333333336</ele><time>2026-04-26T13:38:27.858Z</time></trkpt><trkpt lat="40.0306372040838" lon="8.67298457043937"><ele>46.666666666666664</ele><time>2026-04-26T13:38:28.859Z</time></trkpt><trkpt lat="40.03045826960903" lon="8.672841490214925"><ele>47.0</ele><time>2026-04-26T13:38:29.859Z</time></trkpt><trkpt lat="40.03027962597905" lon="8.67270446773639"><ele>46.33333333333333</ele><time>2026-04-26T13:38:30.858Z</time></trkpt><trkpt lat="40.03009966553152" lon="8.672566463467142"><ele>45.666666666666664</ele><time>2026-04-26T13:38:31.857Z</time></trkpt><trkpt lat="40.02992792762404" lon="8.672447186034542"><ele>45.0</ele><time>2026-04-26T13:38:32.858Z</time></trkpt><trkpt lat="40.02976302265943" lon="8.672336160007676"><ele>45.0</ele><time>2026-04-26T13:38:33.857Z</time></trkpt><trkpt lat="40.02960665920186" lon="8.672217715727472"><ele>45.0</ele><time>2026-04-26T13:38:34.857Z</time></trkpt><trkpt lat="40.02944988764326" lon="8.672105325131742"><ele>45.0</ele><time>2026-04-26T13:38:35.857Z</time></trkpt><trkpt lat="40.02927419623384" lon="8.672008452019702"><ele>44.0</ele><time>2026-04-26T13:38:36.857Z</time></trkpt><trkpt lat="40.029101336254" lon="8.671899972958334"><ele>43.0</ele><time>2026-04-26T13:38:37.857Z</time></trkpt><trkpt lat="40.028918270692856" lon="8.671786344683893"><ele>42.0</ele><time>2026-04-26T13:38:38.857Z</time></trkpt><trkpt lat="40.028724259665125" lon="8.671661473769607"><ele>42.0</ele><time>2026-04-26T13:38:39.857Z</time></trkpt><trkpt lat="40.02857660792654" lon="8.671601936947486"><ele>42.0</ele><time>2026-04-26T13:38:40.856Z</time></trkpt><trkpt lat="40.02835772971266" lon="8.671408445205428"><ele>42.0</ele><time>2026-04-26T13:38:41.856Z</time></trkpt><trkpt lat="40.028186033711904" lon="8.67129388074583"><ele>42.333333333333336</ele><time>2026-04-26T13:38:42.856Z</time></trkpt><trkpt lat="40.02802509941858" lon="8.67119520751116"><ele>42.66666666666667</ele><time>2026-04-26T13:38:43.856Z</time></trkpt><trkpt lat="40.027861928927656" lon="8.67110380196766"><ele>43.0</ele><time>2026-04-26T13:38:44.856Z</time></trkpt><trkpt lat="40.027699587174546" lon="8.671015259178521"><ele>42.333333333333336</ele><time>2026-04-26T13:38:45.856Z</time></trkpt><trkpt lat="40.02753044624675" lon="8.670928717150117"><ele>41.666666666666664</ele><time>2026-04-26T13:38:46.856Z</time></trkpt><trkpt lat="40.027348372559366" lon="8.670841873826278"><ele>41.0</ele><time>2026-04-26T13:38:47.856Z</time></trkpt><trkpt lat="40.0271559980649" lon="8.670756028903426"><ele>40.0</ele><time>2026-04-26T13:38:48.856Z</time></trkpt><trkpt lat="40.02696242469695" lon="8.67066751001708"><ele>39.0</ele><time>2026-04-26T13:38:49.856Z</time></trkpt><trkpt lat="40.02677928880269" lon="8.67059572222177"><ele>38.0</ele><time>2026-04-26T13:38:50.856Z</time></trkpt><trkpt lat="40.02659929693301" lon="8.670526228244348"><ele>38.0</ele><time>2026-04-26T13:38:51.856Z</time></trkpt><trkpt lat="40.02641599992481" lon="8.67045400811354"><ele>38.0</ele><time>2026-04-26T13:38:52.856Z</time></trkpt><trkpt lat="40.02623189387291" lon="8.670381607367915"><ele>38.0</ele><time>2026-04-26T13:38:53.856Z</time></trkpt><trkpt lat="40.02604681473879" lon="8.670315269445407"><ele>37.666666666666664</ele><time>2026-04-26T13:38:54.856Z</time></trkpt><trkpt lat="40.02586093792062" lon="8.67025207117217"><ele>37.333333333333336</ele><time>2026-04-26T13:38:55.855Z</time></trkpt><trkpt lat="40.025673298398324" lon="8.67018664975702"><ele>37.0</ele><time>2026-04-26T13:38:56.855Z</time></trkpt><trkpt lat="40.02548435915288" lon="8.670121324411486"><ele>36.333333333333336</ele><time>2026-04-26T13:38:57.855Z</time></trkpt><trkpt lat="40.0252953132769" lon="8.670057332733132"><ele>35.666666666666664</ele><time>2026-04-26T13:38:58.855Z</time></trkpt><trkpt lat="40.02510573793056" lon="8.669987315540503"><ele>35.0</ele><time>2026-04-26T13:38:59.855Z</time></trkpt><trkpt lat="40.02491222929931" lon="8.669915852797859"><ele>34.666666666666664</ele><time>2026-04-26T13:39:00.855Z</time></trkpt><trkpt lat="40.02471917940912" lon="8.669846314535096"><ele>34.333333333333336</ele><time>2026-04-26T13:39:01.855Z</time></trkpt><trkpt lat="40.024524718697144" lon="8.66977647436901"><ele>34.0</ele><time>2026-04-26T13:39:02.855Z</time></trkpt><trkpt lat="40.024329635118015" lon="8.66970943820508"><ele>33.66666666666667</ele><time>2026-04-26T13:39:03.855Z</time></trkpt><trkpt lat="40.024136546821325" lon="8.669643674473996"><ele>33.333333333333336</ele><time>2026-04-26T13:39:04.855Z</time></trkpt><trkpt lat="40.023946505137516" lon="8.669581276126381"><ele>33.0</ele><time>2026-04-26T13:39:05.855Z</time></trkpt><trkpt lat="40.023757879931146" lon="8.669516474319751"><ele>33.0</ele><time>2026-04-26T13:39:06.855Z</time></trkpt><trkpt lat="40.02356972296905" lon="8.66944719625954"><ele>33.0</ele><time>2026-04-26T13:39:07.855Z</time></trkpt><trkpt lat="40.02337953559024" lon="8.669376834082117"><ele>33.0</ele><time>2026-04-26T13:39:08.855Z</time></trkpt><trkpt lat="40.02318536871941" lon="8.669307773163988"><ele>32.0</ele><time>2026-04-26T13:39:09.855Z</time></trkpt><trkpt lat="40.022990961763846" lon="8.669241751196795"><ele>31.0</ele><time>2026-04-26T13:39:10.855Z</time></trkpt><trkpt lat="40.02279552368152" lon="8.66917478608714"><ele>30.0</ele><time>2026-04-26T13:39:11.855Z</time></trkpt><trkpt lat="40.022601563276005" lon="8.669104526002023"><ele>30.333333333333336</ele><time>2026-04-26T13:39:12.855Z</time></trkpt><trkpt lat="40.02240760405278" lon="8.669031698705517"><ele>30.666666666666668</ele><time>2026-04-26T13:39:13.855Z</time></trkpt><trkpt lat="40.02221074082527" lon="8.668958960448009"><ele>31.0</ele><time>2026-04-26T13:39:14.855Z</time></trkpt><trkpt lat="40.02201182148788" lon="8.668888708113357"><ele>31.0</ele><time>2026-04-26T13:39:15.855Z</time></trkpt><trkpt lat="40.02181216271644" lon="8.668818253358502"><ele>31.0</ele><time>2026-04-26T13:39:16.855Z</time></trkpt><trkpt lat="40.02161207783943" lon="8.66874932666056"><ele>31.0</ele><time>2026-04-26T13:39:17.855Z</time></trkpt><trkpt lat="40.021410472396674" lon="8.668677901921695"><ele>30.333333333333336</ele><time>2026-04-26T13:39:18.855Z</time></trkpt><trkpt lat="40.021213465048945" lon="8.668609933344635"><ele>29.666666666666664</ele><time>2026-04-26T13:39:19.855Z</time></trkpt><trkpt lat="40.021022308565335" lon="8.668542887273434"><ele>29.0</ele><time>2026-04-26T13:39:20.855Z</time></trkpt><trkpt lat="40.0208287493346" lon="8.668474036127124"><ele>28.333333333333332</ele><time>2026-04-26T13:39:21.855Z</time></trkpt><trkpt lat="40.02063857989254" lon="8.668404265650063"><ele>27.666666666666664</ele><time>2026-04-26T13:39:22.855Z</time></trkpt><trkpt lat="40.020447873435174" lon="8.66833458811989"><ele>27.0</ele><time>2026-04-26T13:39:23.855Z</time></trkpt><trkpt lat="40.020253806498346" lon="8.668262867126677"><ele>27.0</ele><time>2026-04-26T13:39:24.855Z</time></trkpt><trkpt lat="40.02005802052098" lon="8.668191002696494"><ele>27.0</ele><time>2026-04-26T13:39:25.855Z</time></trkpt><trkpt lat="40.019864105067136" lon="8.668121417711102"><ele>27.0</ele><time>2026-04-26T13:39:26.855Z</time></trkpt><trkpt lat="40.01966833110378" lon="8.66805354864762"><ele>26.333333333333336</ele><time>2026-04-26T13:39:27.855Z</time></trkpt><trkpt lat="40.01947136840556" lon="8.667984877833074"><ele>25.666666666666668</ele><time>2026-04-26T13:39:28.855Z</time></trkpt><trkpt lat="40.01927641414285" lon="8.667915589001975"><ele>25.0</ele><time>2026-04-26T13:39:29.855Z</time></trkpt><trkpt lat="40.01909660992778" lon="8.667851763208462"><ele>25.5</ele><time>2026-04-26T13:39:30.855Z</time></trkpt><trkpt lat="40.01894467049515" lon="8.667799056921124"><ele>26.0</ele><time>2026-04-26T13:39:31.855Z</time></trkpt><trkpt lat="40.0188153829404" lon="8.66774956522385"><ele>26.5</ele><time>2026-04-26T13:39:32.855Z</time></trkpt><trkpt lat="40.0187156843925" lon="8.667703691561313"><ele>27.0</ele><time>2026-04-26T13:39:33.855Z</time></trkpt><trkpt lat="40.01863685123658" lon="8.66766509703918"><ele>27.0</ele><time>2026-04-26T13:39:34.855Z</time></trkpt><trkpt lat="40.01855089786806" lon="8.667628755258269"><ele>27.000000000000004</ele><time>2026-04-26T13:39:36.855Z</time></trkpt><trkpt lat="40.018482895806635" lon="8.66763757970482"><ele>27.000000000000004</ele><time>2026-04-26T13:40:14.855Z</time></trkpt><trkpt lat="40.01836898801786" lon="8.66762078611853"><ele>27.0</ele><time>2026-04-26T13:40:16.855Z</time></trkpt><trkpt lat="40.01828851146554" lon="8.667600530093491"><ele>27.0</ele><time>2026-04-26T13:40:17.855Z</time></trkpt><trkpt lat="40.01819631530203" lon="8.667566435664376"><ele>27.200000000000003</ele><time>2026-04-26T13:40:18.855Z</time></trkpt><trkpt lat="40.01810627530625" lon="8.667532145237965"><ele>27.400000000000002</ele><time>2026-04-26T13:40:19.855Z</time></trkpt><trkpt lat="40.018004524880304" lon="8.667495897627196"><ele>27.599999999999998</ele><time>2026-04-26T13:40:20.855Z</time></trkpt><trkpt lat="40.017894992961736" lon="8.667457235815727"><ele>27.799999999999997</ele><time>2026-04-26T13:40:21.855Z</time></trkpt><trkpt lat="40.0177753928801" lon="8.66741490440935"><ele>28.0</ele><time>2026-04-26T13:40:22.855Z</time></trkpt><trkpt lat="40.01765742504446" lon="8.667374603346017"><ele>28.0</ele><time>2026-04-26T13:40:23.855Z</time></trkpt><trkpt lat="40.01753040685306" lon="8.667331790909689"><ele>28.0</ele><time>2026-04-26T13:40:24.855Z</time></trkpt><trkpt lat="40.01739837188619" lon="8.667285912068152"><ele>28.0</ele><time>2026-04-26T13:40:25.854Z</time></trkpt><trkpt lat="40.017260309483305" lon="8.667238851045992"><ele>28.0</ele><time>2026-04-26T13:40:26.853Z</time></trkpt><trkpt lat="40.01711887820044" lon="8.667190263228742"><ele>27.333333333333336</ele><time>2026-04-26T13:40:27.853Z</time></trkpt><trkpt lat="40.01697449636122" lon="8.667146422747646"><ele>26.666666666666664</ele><time>2026-04-26T13:40:28.854Z</time></trkpt><trkpt lat="40.01682460152415" lon="8.667098848583175"><ele>26.0</ele><time>2026-04-26T13:40:29.854Z</time></trkpt><trkpt lat="40.016669360377" lon="8.667053658779315"><ele>26.0</ele><time>2026-04-26T13:40:30.854Z</time></trkpt><trkpt lat="40.016507916514634" lon="8.667003417650118"><ele>26.0</ele><time>2026-04-26T13:40:31.853Z</time></trkpt><trkpt lat="40.016339813407996" lon="8.666952566353597"><ele>26.0</ele><time>2026-04-26T13:40:32.854Z</time></trkpt><trkpt lat="40.01616336701278" lon="8.666896662829021"><ele>25.333333333333332</ele><time>2026-04-26T13:40:33.854Z</time></trkpt><trkpt lat="40.015985039761325" lon="8.666840457918356"><ele>24.666666666666664</ele><time>2026-04-26T13:40:34.854Z</time></trkpt><trkpt lat="40.0158112935341" lon="8.66678842432063"><ele>24.0</ele><time>2026-04-26T13:40:35.854Z</time></trkpt><trkpt lat="40.01563445874794" lon="8.666732638467256"><ele>24.0</ele><time>2026-04-26T13:40:36.854Z</time></trkpt><trkpt lat="40.01545860780075" lon="8.666681709811218"><ele>24.0</ele><time>2026-04-26T13:40:37.854Z</time></trkpt><trkpt lat="40.01527840898228" lon="8.666628134262409"><ele>24.0</ele><time>2026-04-26T13:40:38.854Z</time></trkpt><trkpt lat="40.0150959124066" lon="8.666577451860823"><ele>24.0</ele><time>2026-04-26T13:40:39.854Z</time></trkpt><trkpt lat="40.014912669918644" lon="8.666521381982948"><ele>24.0</ele><time>2026-04-26T13:40:40.854Z</time></trkpt><trkpt lat="40.014728307337165" lon="8.666462881761735"><ele>24.0</ele><time>2026-04-26T13:40:41.854Z</time></trkpt><trkpt lat="40.01454596897219" lon="8.666404342504693"><ele>24.0</ele><time>2026-04-26T13:40:42.854Z</time></trkpt><trkpt lat="40.014360085345686" lon="8.666355801414904"><ele>24.0</ele><time>2026-04-26T13:40:43.854Z</time></trkpt><trkpt lat="40.01416817450898" lon="8.666294549568667"><ele>24.0</ele><time>2026-04-26T13:40:44.854Z</time></trkpt><trkpt lat="40.01397435436917" lon="8.66623293067334"><ele>24.333333333333336</ele><time>2026-04-26T13:40:45.854Z</time></trkpt><trkpt lat="40.01378095537861" lon="8.666175107873281"><ele>24.666666666666668</ele><time>2026-04-26T13:40:46.854Z</time></trkpt><trkpt lat="40.01358769409284" lon="8.666115179979938"><ele>25.0</ele><time>2026-04-26T13:40:47.854Z</time></trkpt><trkpt lat="40.013395118738046" lon="8.666055407249283"><ele>24.0</ele><time>2026-04-26T13:40:48.854Z</time></trkpt><trkpt lat="40.01320201924992" lon="8.66599055431667"><ele>23.0</ele><time>2026-04-26T13:40:49.854Z</time></trkpt><trkpt lat="40.0130072618042" lon="8.665932430268784"><ele>22.0</ele><time>2026-04-26T13:40:50.854Z</time></trkpt><trkpt lat="40.0128128368595" lon="8.665868937650572"><ele>22.0</ele><time>2026-04-26T13:40:51.854Z</time></trkpt><trkpt lat="40.01261739471197" lon="8.665805840328709"><ele>22.0</ele><time>2026-04-26T13:40:52.854Z</time></trkpt><trkpt lat="40.01242354023467" lon="8.665744790065883"><ele>22.0</ele><time>2026-04-26T13:40:53.854Z</time></trkpt><trkpt lat="40.01222797053437" lon="8.66568261841775"><ele>22.333333333333332</ele><time>2026-04-26T13:40:54.854Z</time></trkpt><trkpt lat="40.012029959983316" lon="8.66561877323564"><ele>22.666666666666668</ele><time>2026-04-26T13:40:55.854Z</time></trkpt><trkpt lat="40.01183143955605" lon="8.665553680120297"><ele>23.0</ele><time>2026-04-26T13:40:56.854Z</time></trkpt><trkpt lat="40.01163213679343" lon="8.665487675586064"><ele>22.333333333333336</ele><time>2026-04-26T13:40:57.854Z</time></trkpt><trkpt lat="40.011432062949034" lon="8.66541953536381"><ele>21.666666666666668</ele><time>2026-04-26T13:40:58.854Z</time></trkpt><trkpt lat="40.01123309791948" lon="8.665350431241805"><ele>21.0</ele><time>2026-04-26T13:40:59.854Z</time></trkpt><trkpt lat="40.0110324814289" lon="8.665287416561387"><ele>21.0</ele><time>2026-04-26T13:41:00.854Z</time></trkpt><trkpt lat="40.010831907639776" lon="8.665221704320695"><ele>21.0</ele><time>2026-04-26T13:41:01.854Z</time></trkpt><trkpt lat="40.01062788509054" lon="8.665157727506863"><ele>21.0</ele><time>2026-04-26T13:41:02.854Z</time></trkpt><trkpt lat="40.01042552777602" lon="8.665089317682765"><ele>21.0</ele><time>2026-04-26T13:41:03.854Z</time></trkpt><trkpt lat="40.01022710268867" lon="8.665016889143141"><ele>21.0</ele><time>2026-04-26T13:41:04.854Z</time></trkpt><trkpt lat="40.01003790164262" lon="8.664947019199628"><ele>21.0</ele><time>2026-04-26T13:41:05.854Z</time></trkpt><trkpt lat="40.00986504961038" lon="8.664887636309427"><ele>21.0</ele><time>2026-04-26T13:41:06.854Z</time></trkpt><trkpt lat="40.009707278749175" lon="8.664828731268178"><ele>21.0</ele><time>2026-04-26T13:41:07.854Z</time></trkpt><trkpt lat="40.00957493771121" lon="8.664781702278484"><ele>21.0</ele><time>2026-04-26T13:41:08.854Z</time></trkpt><trkpt lat="40.00946268873009" lon="8.664738315014757"><ele>21.0</ele><time>2026-04-26T13:41:09.854Z</time></trkpt><trkpt lat="40.00936920257199" lon="8.664702003822388"><ele>21.0</ele><time>2026-04-26T13:41:10.854Z</time></trkpt><trkpt lat="40.00930374629771" lon="8.664678796544713"><ele>21.0</ele><time>2026-04-26T13:41:11.854Z</time></trkpt><trkpt lat="40.009221341879936" lon="8.66465338470105"><ele>21.0</ele><time>2026-04-26T13:42:02.854Z</time></trkpt><trkpt lat="40.00912080370176" lon="8.664633617623986"><ele>21.0</ele><time>2026-04-26T13:42:04.854Z</time></trkpt><trkpt lat="40.00905798640199" lon="8.664614223601264"><ele>21.0</ele><time>2026-04-26T13:42:05.854Z</time></trkpt><trkpt lat="40.00898430053744" lon="8.664585707026593"><ele>21.0</ele><time>2026-04-26T13:42:06.854Z</time></trkpt><trkpt lat="40.00889583315239" lon="8.664557045629797"><ele>20.6</ele><time>2026-04-26T13:42:07.854Z</time></trkpt><trkpt lat="40.00881331100215" lon="8.66452732531187"><ele>20.200000000000003</ele><time>2026-04-26T13:42:08.854Z</time></trkpt><trkpt lat="40.00871081950372" lon="8.6644941884929"><ele>19.799999999999997</ele><time>2026-04-26T13:42:09.854Z</time></trkpt><trkpt lat="40.00860591020682" lon="8.664460203694997"><ele>19.4</ele><time>2026-04-26T13:42:10.854Z</time></trkpt><trkpt lat="40.008510029948674" lon="8.664432482333574"><ele>19.0</ele><time>2026-04-26T13:42:11.854Z</time></trkpt><trkpt lat="40.00840401692242" lon="8.66440006280299"><ele>19.0</ele><time>2026-04-26T13:42:12.854Z</time></trkpt><trkpt lat="40.00829791386951" lon="8.664364469767863"><ele>19.0</ele><time>2026-04-26T13:42:13.854Z</time></trkpt><trkpt lat="40.00818241375162" lon="8.664323156930449"><ele>19.0</ele><time>2026-04-26T13:42:14.854Z</time></trkpt><trkpt lat="40.00806197444597" lon="8.664280139529279"><ele>19.0</ele><time>2026-04-26T13:42:15.854Z</time></trkpt><trkpt lat="40.00793335892135" lon="8.664237181670504"><ele>19.0</ele><time>2026-04-26T13:42:16.854Z</time></trkpt><trkpt lat="40.00779790070111" lon="8.664187634453768"><ele>19.0</ele><time>2026-04-26T13:42:17.854Z</time></trkpt><trkpt lat="40.00765720304343" lon="8.664133992282057"><ele>19.0</ele><time>2026-04-26T13:42:18.854Z</time></trkpt><trkpt lat="40.00751844947454" lon="8.664080640883354"><ele>19.0</ele><time>2026-04-26T13:42:19.854Z</time></trkpt><trkpt lat="40.007380803474966" lon="8.664025263883579"><ele>19.25</ele><time>2026-04-26T13:42:20.854Z</time></trkpt><trkpt lat="40.007241328779386" lon="8.663965802035984"><ele>19.5</ele><time>2026-04-26T13:42:21.854Z</time></trkpt><trkpt lat="40.007098549629106" lon="8.663905778747376"><ele>19.75</ele><time>2026-04-26T13:42:22.854Z</time></trkpt><trkpt lat="40.00695437863411" lon="8.663843472202677"><ele>20.0</ele><time>2026-04-26T13:42:23.854Z</time></trkpt><trkpt lat="40.00680754279348" lon="8.663775705365993"><ele>20.0</ele><time>2026-04-26T13:42:24.854Z</time></trkpt><trkpt lat="40.00665487013559" lon="8.663704601342175"><ele>20.0</ele><time>2026-04-26T13:42:25.854Z</time></trkpt><trkpt lat="40.00650098237049" lon="8.663628484918199"><ele>20.0</ele><time>2026-04-26T13:42:26.854Z</time></trkpt><trkpt lat="40.00634902219711" lon="8.663551728865281"><ele>20.0</ele><time>2026-04-26T13:42:27.854Z</time></trkpt><trkpt lat="40.006194035828365" lon="8.66347225877932"><ele>20.0</ele><time>2026-04-26T13:42:28.854Z</time></trkpt><trkpt lat="40.00604276504083" lon="8.663385318725584"><ele>20.0</ele><time>2026-04-26T13:42:29.854Z</time></trkpt><trkpt lat="40.005886410350996" lon="8.663297820006978"><ele>21.0</ele><time>2026-04-26T13:42:30.854Z</time></trkpt><trkpt lat="40.00572923575865" lon="8.663205920387565"><ele>22.0</ele><time>2026-04-26T13:42:31.853Z</time></trkpt><trkpt lat="40.005567848785134" lon="8.66310500173304"><ele>23.0</ele><time>2026-04-26T13:42:32.853Z</time></trkpt><trkpt lat="40.00541182805182" lon="8.663005530689084"><ele>23.0</ele><time>2026-04-26T13:42:33.853Z</time></trkpt><trkpt lat="40.00526070419094" lon="8.662902000655354"><ele>23.0</ele><time>2026-04-26T13:42:34.852Z</time></trkpt><trkpt lat="40.005112948351574" lon="8.662798089003976"><ele>23.0</ele><time>2026-04-26T13:42:35.853Z</time></trkpt><trkpt lat="40.00496156626067" lon="8.662690437126457"><ele>22.666666666666668</ele><time>2026-04-26T13:42:36.853Z</time></trkpt><trkpt lat="40.00481256233505" lon="8.662582410606479"><ele>22.333333333333332</ele><time>2026-04-26T13:42:37.853Z</time></trkpt><trkpt lat="40.004661129666914" lon="8.662473107983905"><ele>22.0</ele><time>2026-04-26T13:42:38.852Z</time></trkpt><trkpt lat="40.00451023672784" lon="8.662361934029233"><ele>22.0</ele><time>2026-04-26T13:42:39.852Z</time></trkpt><trkpt lat="40.00435777821315" lon="8.662242489927516"><ele>22.0</ele><time>2026-04-26T13:42:40.853Z</time></trkpt><trkpt lat="40.00420295041139" lon="8.662120535872832"><ele>22.0</ele><time>2026-04-26T13:42:41.853Z</time></trkpt><trkpt lat="40.00404712163739" lon="8.661997548471266"><ele>22.0</ele><time>2026-04-26T13:42:42.853Z</time></trkpt><trkpt lat="40.003892901558636" lon="8.66187373574669"><ele>22.0</ele><time>2026-04-26T13:42:43.853Z</time></trkpt><trkpt lat="40.00374024606987" lon="8.661750584588717"><ele>22.0</ele><time>2026-04-26T13:42:44.853Z</time></trkpt><trkpt lat="40.00358255454817" lon="8.661629166419866"><ele>22.0</ele><time>2026-04-26T13:42:45.853Z</time></trkpt><trkpt lat="40.00342507613302" lon="8.661506956801647"><ele>22.0</ele><time>2026-04-26T13:42:46.853Z</time></trkpt><trkpt lat="40.003267506104365" lon="8.661382681328204"><ele>22.0</ele><time>2026-04-26T13:42:47.853Z</time></trkpt><trkpt lat="40.003111807092274" lon="8.661255647020626"><ele>22.333333333333332</ele><time>2026-04-26T13:42:48.853Z</time></trkpt><trkpt lat="40.00295841426304" lon="8.661125242769405"><ele>22.666666666666668</ele><time>2026-04-26T13:42:49.853Z</time></trkpt><trkpt lat="40.002802163861965" lon="8.660998734487244"><ele>23.0</ele><time>2026-04-26T13:42:50.853Z</time></trkpt><trkpt lat="40.00264722765721" lon="8.660874520181624"><ele>22.333333333333336</ele><time>2026-04-26T13:42:51.853Z</time></trkpt><trkpt lat="40.00249198680508" lon="8.660747089257043"><ele>21.666666666666668</ele><time>2026-04-26T13:42:52.853Z</time></trkpt><trkpt lat="40.00233344289316" lon="8.660627612862205"><ele>21.0</ele><time>2026-04-26T13:42:53.853Z</time></trkpt><trkpt lat="40.002175235835" lon="8.66049906106468"><ele>21.0</ele><time>2026-04-26T13:42:54.853Z</time></trkpt><trkpt lat="40.00201158468667" lon="8.660369800276458"><ele>21.0</ele><time>2026-04-26T13:42:55.853Z</time></trkpt><trkpt lat="40.0018490411438" lon="8.660239805334774"><ele>21.0</ele><time>2026-04-26T13:42:56.853Z</time></trkpt><trkpt lat="40.001690871284254" lon="8.660108308541128"><ele>20.666666666666668</ele><time>2026-04-26T13:42:57.853Z</time></trkpt><trkpt lat="40.001534806767395" lon="8.659980023856836"><ele>20.333333333333336</ele><time>2026-04-26T13:42:58.853Z</time></trkpt><trkpt lat="40.00137486370973" lon="8.659851848383001"><ele>20.0</ele><time>2026-04-26T13:42:59.853Z</time></trkpt><trkpt lat="40.00121932470392" lon="8.659724426895979"><ele>20.0</ele><time>2026-04-26T13:43:00.853Z</time></trkpt><trkpt lat="40.00106398790614" lon="8.659594554063643"><ele>20.0</ele><time>2026-04-26T13:43:01.853Z</time></trkpt><trkpt lat="40.00091198801103" lon="8.659472043470306"><ele>20.0</ele><time>2026-04-26T13:43:02.853Z</time></trkpt><trkpt lat="40.00076091730341" lon="8.659349456217212"><ele>19.333333333333336</ele><time>2026-04-26T13:43:03.853Z</time></trkpt><trkpt lat="40.00061509078376" lon="8.659226399828292"><ele>18.666666666666668</ele><time>2026-04-26T13:43:04.853Z</time></trkpt><trkpt lat="40.000467909223005" lon="8.659111429451269"><ele>18.0</ele><time>2026-04-26T13:43:05.853Z</time></trkpt><trkpt lat="40.000322299590096" lon="8.658996060412129"><ele>18.0</ele><time>2026-04-26T13:43:06.853Z</time></trkpt><trkpt lat="40.00017663785066" lon="8.658876633182297"><ele>18.0</ele><time>2026-04-26T13:43:07.853Z</time></trkpt><trkpt lat="40.0000323728152" lon="8.658745213880055"><ele>18.0</ele><time>2026-04-26T13:43:08.853Z</time></trkpt><trkpt lat="39.99988490203007" lon="8.658611626100653"><ele>16.666666666666668</ele><time>2026-04-26T13:43:09.853Z</time></trkpt><trkpt lat="39.99973715601804" lon="8.658471961405695"><ele>15.333333333333334</ele><time>2026-04-26T13:43:10.853Z</time></trkpt><trkpt lat="39.999590636923394" lon="8.658331589984808"><ele>14.0</ele><time>2026-04-26T13:43:11.853Z</time></trkpt><trkpt lat="39.99944708581891" lon="8.658190145677557"><ele>14.0</ele><time>2026-04-26T13:43:12.853Z</time></trkpt><trkpt lat="39.99930695216805" lon="8.658043840029313"><ele>14.0</ele><time>2026-04-26T13:43:13.853Z</time></trkpt><trkpt lat="39.99916589846676" lon="8.657894744797538"><ele>14.0</ele><time>2026-04-26T13:43:14.853Z</time></trkpt><trkpt lat="39.99902274339675" lon="8.657742873803237"><ele>13.666666666666668</ele><time>2026-04-26T13:43:15.853Z</time></trkpt><trkpt lat="39.99888031573746" lon="8.657585274347301"><ele>13.333333333333332</ele><time>2026-04-26T13:43:16.853Z</time></trkpt><trkpt lat="39.998737894462174" lon="8.657422897216517"><ele>13.0</ele><time>2026-04-26T13:43:17.853Z</time></trkpt><trkpt lat="39.99860050291885" lon="8.657257743298164"><ele>13.0</ele><time>2026-04-26T13:43:18.853Z</time></trkpt><trkpt lat="39.99846346597723" lon="8.657092897547583"><ele>13.0</ele><time>2026-04-26T13:43:19.853Z</time></trkpt><trkpt lat="39.99832912897638" lon="8.656923012463912"><ele>13.0</ele><time>2026-04-26T13:43:20.853Z</time></trkpt><trkpt lat="39.99819452376368" lon="8.656752130309565"><ele>13.666666666666666</ele><time>2026-04-26T13:43:21.853Z</time></trkpt><trkpt lat="39.99805959603093" lon="8.656583841016237"><ele>14.333333333333332</ele><time>2026-04-26T13:43:22.853Z</time></trkpt><trkpt lat="39.99792831842026" lon="8.656415139214461"><ele>15.0</ele><time>2026-04-26T13:43:23.853Z</time></trkpt><trkpt lat="39.997797542527685" lon="8.656240088773055"><ele>14.0</ele><time>2026-04-26T13:43:24.853Z</time></trkpt><trkpt lat="39.99767161646988" lon="8.656064428253163"><ele>13.0</ele><time>2026-04-26T13:43:25.853Z</time></trkpt><trkpt lat="39.99755145638962" lon="8.655885924505213"><ele>12.0</ele><time>2026-04-26T13:43:26.853Z</time></trkpt><trkpt lat="39.99744008528215" lon="8.655707550574688"><ele>13.0</ele><time>2026-04-26T13:43:27.853Z</time></trkpt><trkpt lat="39.99732700473459" lon="8.655528438876601"><ele>14.0</ele><time>2026-04-26T13:43:28.853Z</time></trkpt><trkpt lat="39.99721536150448" lon="8.655345877306168"><ele>15.0</ele><time>2026-04-26T13:43:29.853Z</time></trkpt><trkpt lat="39.99710834081151" lon="8.65515994972775"><ele>15.0</ele><time>2026-04-26T13:43:30.853Z</time></trkpt><trkpt lat="39.996999635546544" lon="8.654968826113324"><ele>15.0</ele><time>2026-04-26T13:43:31.853Z</time></trkpt><trkpt lat="39.99689120869975" lon="8.65477612821475"><ele>15.0</ele><time>2026-04-26T13:43:32.853Z</time></trkpt><trkpt lat="39.9967852765229" lon="8.654577591812885"><ele>14.666666666666668</ele><time>2026-04-26T13:43:33.853Z</time></trkpt><trkpt lat="39.99668247042929" lon="8.654378362807087"><ele>14.333333333333334</ele><time>2026-04-26T13:43:34.853Z</time></trkpt><trkpt lat="39.9965797723454" lon="8.654175112740155"><ele>14.0</ele><time>2026-04-26T13:43:35.853Z</time></trkpt><trkpt lat="39.996477374389755" lon="8.65396963850479"><ele>15.0</ele><time>2026-04-26T13:43:36.853Z</time></trkpt><trkpt lat="39.99637474852726" lon="8.653765843464951"><ele>16.0</ele><time>2026-04-26T13:43:37.853Z</time></trkpt><trkpt lat="39.996277065534464" lon="8.653559671454353"><ele>17.0</ele><time>2026-04-26T13:43:38.853Z</time></trkpt><trkpt lat="39.99617965420069" lon="8.653353220688944"><ele>17.0</ele><time>2026-04-26T13:43:39.853Z</time></trkpt><trkpt lat="39.9960794619049" lon="8.65314746980648"><ele>17.0</ele><time>2026-04-26T13:43:40.853Z</time></trkpt><trkpt lat="39.99597940369607" lon="8.652941711663148"><ele>17.0</ele><time>2026-04-26T13:43:41.853Z</time></trkpt><trkpt lat="39.99587788787406" lon="8.652729538027211"><ele>17.333333333333336</ele><time>2026-04-26T13:43:42.853Z</time></trkpt><trkpt lat="39.995778429015374" lon="8.65252010391395"><ele>17.666666666666668</ele><time>2026-04-26T13:43:43.853Z</time></trkpt><trkpt lat="39.9956796165928" lon="8.652311324133963"><ele>18.0</ele><time>2026-04-26T13:43:44.853Z</time></trkpt><trkpt lat="39.99557835124107" lon="8.652103756208959"><ele>17.666666666666668</ele><time>2026-04-26T13:43:45.853Z</time></trkpt><trkpt lat="39.99547994103097" lon="8.651892302080556"><ele>17.333333333333336</ele><time>2026-04-26T13:43:46.853Z</time></trkpt><trkpt lat="39.995377653695535" lon="8.65168109468346"><ele>17.0</ele><time>2026-04-26T13:43:47.853Z</time></trkpt><trkpt lat="39.99527464005955" lon="8.65147004313718"><ele>17.0</ele><time>2026-04-26T13:43:48.853Z</time></trkpt><trkpt lat="39.99517471407563" lon="8.651254730001808"><ele>17.0</ele><time>2026-04-26T13:43:49.853Z</time></trkpt><trkpt lat="39.99507323595889" lon="8.651041735435"><ele>17.0</ele><time>2026-04-26T13:43:50.853Z</time></trkpt><trkpt lat="39.9949742762616" lon="8.650826429347125"><ele>17.0</ele><time>2026-04-26T13:43:51.853Z</time></trkpt><trkpt lat="39.994872077214616" lon="8.650609547865557"><ele>17.0</ele><time>2026-04-26T13:43:52.853Z</time></trkpt><trkpt lat="39.99476724843609" lon="8.650392631392414"><ele>17.0</ele><time>2026-04-26T13:43:53.853Z</time></trkpt><trkpt lat="39.99466591267984" lon="8.650180871063105"><ele>16.333333333333336</ele><time>2026-04-26T13:43:54.853Z</time></trkpt><trkpt lat="39.99456830467166" lon="8.649969210743668"><ele>15.666666666666668</ele><time>2026-04-26T13:43:55.853Z</time></trkpt><trkpt lat="39.99447129017048" lon="8.649759282510214"><ele>15.0</ele><time>2026-04-26T13:43:56.853Z</time></trkpt><trkpt lat="39.994372698655674" lon="8.64954556872771"><ele>15.666666666666668</ele><time>2026-04-26T13:43:57.853Z</time></trkpt><trkpt lat="39.99427268162096" lon="8.649332945502458"><ele>16.333333333333336</ele><time>2026-04-26T13:43:58.853Z</time></trkpt><trkpt lat="39.99417307680778" lon="8.649122445459378"><ele>17.0</ele><time>2026-04-26T13:43:59.853Z</time></trkpt><trkpt lat="39.99407153662157" lon="8.648907294043878"><ele>17.0</ele><time>2026-04-26T13:44:00.853Z</time></trkpt><trkpt lat="39.99396554230617" lon="8.648690345669946"><ele>17.0</ele><time>2026-04-26T13:44:01.853Z</time></trkpt><trkpt lat="39.99386287976766" lon="8.64847024697641"><ele>17.0</ele><time>2026-04-26T13:44:02.853Z</time></trkpt><trkpt lat="39.993761821306656" lon="8.648246952310082"><ele>16.333333333333336</ele><time>2026-04-26T13:44:03.853Z</time></trkpt><trkpt lat="39.99365968787567" lon="8.648028998033872"><ele>15.666666666666668</ele><time>2026-04-26T13:44:04.853Z</time></trkpt><trkpt lat="39.99355910660128" lon="8.647809155002737"><ele>15.0</ele><time>2026-04-26T13:44:05.853Z</time></trkpt><trkpt lat="39.99345959242786" lon="8.64759366488952"><ele>14.666666666666668</ele><time>2026-04-26T13:44:06.853Z</time></trkpt><trkpt lat="39.99335730374826" lon="8.647376260689121"><ele>14.333333333333334</ele><time>2026-04-26T13:44:07.853Z</time></trkpt><trkpt lat="39.99325235603105" lon="8.647158434843494"><ele>14.0</ele><time>2026-04-26T13:44:08.853Z</time></trkpt><trkpt lat="39.99314758368855" lon="8.646944431337742"><ele>13.0</ele><time>2026-04-26T13:44:09.853Z</time></trkpt><trkpt lat="39.993044847971454" lon="8.646729938779204"><ele>12.0</ele><time>2026-04-26T13:44:10.853Z</time></trkpt><trkpt lat="39.99294107795443" lon="8.646520663164317"><ele>11.0</ele><time>2026-04-26T13:44:11.853Z</time></trkpt><trkpt lat="39.99283605733589" lon="8.646314404282313"><ele>10.333333333333332</ele><time>2026-04-26T13:44:12.853Z</time></trkpt><trkpt lat="39.992728638435565" lon="8.646102074963974"><ele>9.666666666666666</ele><time>2026-04-26T13:44:13.853Z</time></trkpt><trkpt lat="39.99261861483785" lon="8.645894426265702"><ele>9.0</ele><time>2026-04-26T13:44:14.853Z</time></trkpt><trkpt lat="39.992508362796706" lon="8.645688336294231"><ele>9.666666666666666</ele><time>2026-04-26T13:44:15.853Z</time></trkpt><trkpt lat="39.992391673800206" lon="8.645484422257878"><ele>10.333333333333332</ele><time>2026-04-26T13:44:16.853Z</time></trkpt><trkpt lat="39.99227668943484" lon="8.645278184688522"><ele>11.0</ele><time>2026-04-26T13:44:17.853Z</time></trkpt><trkpt lat="39.99215946634005" lon="8.645076945244416"><ele>11.0</ele><time>2026-04-26T13:44:18.853Z</time></trkpt><trkpt lat="39.99203946700319" lon="8.644876895043604"><ele>11.0</ele><time>2026-04-26T13:44:19.853Z</time></trkpt><trkpt lat="39.99192093739739" lon="8.644677794087412"><ele>11.0</ele><time>2026-04-26T13:44:20.853Z</time></trkpt><trkpt lat="39.99179566047083" lon="8.644480455324162"><ele>11.333333333333332</ele><time>2026-04-26T13:44:21.853Z</time></trkpt><trkpt lat="39.99166671651922" lon="8.644287666088454"><ele>11.666666666666666</ele><time>2026-04-26T13:44:22.853Z</time></trkpt><trkpt lat="39.99153527719429" lon="8.644096443948746"><ele>12.0</ele><time>2026-04-26T13:44:23.853Z</time></trkpt><trkpt lat="39.99140262149337" lon="8.643902949290784"><ele>12.0</ele><time>2026-04-26T13:44:24.853Z</time></trkpt><trkpt lat="39.99126805152293" lon="8.643711886424313"><ele>12.0</ele><time>2026-04-26T13:44:25.853Z</time></trkpt><trkpt lat="39.99113318608322" lon="8.643517500342183"><ele>12.0</ele><time>2026-04-26T13:44:26.853Z</time></trkpt><trkpt lat="39.99099784662666" lon="8.643327879135601"><ele>12.0</ele><time>2026-04-26T13:44:27.853Z</time></trkpt><trkpt lat="39.99086286134314" lon="8.643139570790707"><ele>12.0</ele><time>2026-04-26T13:44:28.853Z</time></trkpt><trkpt lat="39.990728511689056" lon="8.64295305404915"><ele>12.0</ele><time>2026-04-26T13:44:29.853Z</time></trkpt><trkpt lat="39.990593821624245" lon="8.642764614330487"><ele>12.666666666666668</ele><time>2026-04-26T13:44:30.853Z</time></trkpt><trkpt lat="39.990463433198705" lon="8.642575501269878"><ele>13.333333333333334</ele><time>2026-04-26T13:44:31.853Z</time></trkpt><trkpt lat="39.9903345944862" lon="8.64238994484994"><ele>14.0</ele><time>2026-04-26T13:44:32.853Z</time></trkpt><trkpt lat="39.99020598983054" lon="8.64220699815691"><ele>14.0</ele><time>2026-04-26T13:44:33.853Z</time></trkpt><trkpt lat="39.9900788520201" lon="8.642026568535456"><ele>14.0</ele><time>2026-04-26T13:44:34.853Z</time></trkpt><trkpt lat="39.98995376616758" lon="8.64184779672831"><ele>14.0</ele><time>2026-04-26T13:44:35.853Z</time></trkpt><trkpt lat="39.9898280710104" lon="8.641669648806136"><ele>14.0</ele><time>2026-04-26T13:44:36.853Z</time></trkpt><trkpt lat="39.98970034964238" lon="8.641490685653782"><ele>14.0</ele><time>2026-04-26T13:44:37.852Z</time></trkpt><trkpt lat="39.989570355106814" lon="8.641310879072417"><ele>14.0</ele><time>2026-04-26T13:44:38.852Z</time></trkpt><trkpt lat="39.989441689847794" lon="8.641131469358918"><ele>14.0</ele><time>2026-04-26T13:44:39.852Z</time></trkpt><trkpt lat="39.98931711386412" lon="8.640952183021032"><ele>14.0</ele><time>2026-04-26T13:44:40.852Z</time></trkpt><trkpt lat="39.989195208373346" lon="8.640768733414511"><ele>14.0</ele><time>2026-04-26T13:44:41.852Z</time></trkpt><trkpt lat="39.989066179941" lon="8.640586206543409"><ele>14.333333333333334</ele><time>2026-04-26T13:44:42.852Z</time></trkpt><trkpt lat="39.98893579374092" lon="8.640404062562103"><ele>14.666666666666668</ele><time>2026-04-26T13:44:43.852Z</time></trkpt><trkpt lat="39.98881355273732" lon="8.640223714692853"><ele>15.0</ele><time>2026-04-26T13:44:44.852Z</time></trkpt><trkpt lat="39.98868758523527" lon="8.640037436627699"><ele>15.0</ele><time>2026-04-26T13:44:45.852Z</time></trkpt><trkpt lat="39.98857058510057" lon="8.639871756090962"><ele>15.0</ele><time>2026-04-26T13:44:46.852Z</time></trkpt><trkpt lat="39.98844697065065" lon="8.639710987207902"><ele>15.0</ele><time>2026-04-26T13:44:47.852Z</time></trkpt><trkpt lat="39.98834410903223" lon="8.639540307660253"><ele>15.333333333333332</ele><time>2026-04-26T13:44:48.852Z</time></trkpt><trkpt lat="39.98822630372353" lon="8.639380574161752"><ele>15.666666666666666</ele><time>2026-04-26T13:44:49.852Z</time></trkpt><trkpt lat="39.98809707890784" lon="8.639228545602469"><ele>16.0</ele><time>2026-04-26T13:44:50.851Z</time></trkpt><trkpt lat="39.98795128644199" lon="8.639046167433804"><ele>16.0</ele><time>2026-04-26T13:44:51.851Z</time></trkpt><trkpt lat="39.98778128088092" lon="8.63885958050723"><ele>16.0</ele><time>2026-04-26T13:44:52.851Z</time></trkpt><trkpt lat="39.987677114952085" lon="8.63870527385904"><ele>16.0</ele><time>2026-04-26T13:44:53.851Z</time></trkpt><trkpt lat="39.98745844333615" lon="8.638459734699651"><ele>16.0</ele><time>2026-04-26T13:44:54.851Z</time></trkpt><trkpt lat="39.98729463167547" lon="8.638254020852301"><ele>16.0</ele><time>2026-04-26T13:44:55.851Z</time></trkpt><trkpt lat="39.987144196821944" lon="8.638066272856262"><ele>16.0</ele><time>2026-04-26T13:44:56.851Z</time></trkpt><trkpt lat="39.986995650659395" lon="8.63788395407853"><ele>16.0</ele><time>2026-04-26T13:44:57.851Z</time></trkpt><trkpt lat="39.986851241678316" lon="8.63770089459543"><ele>16.0</ele><time>2026-04-26T13:44:58.851Z</time></trkpt><trkpt lat="39.98670630968507" lon="8.637517767201548"><ele>16.0</ele><time>2026-04-26T13:44:59.851Z</time></trkpt><trkpt lat="39.986561319255664" lon="8.637336469791107"><ele>16.0</ele><time>2026-04-26T13:45:00.851Z</time></trkpt><trkpt lat="39.986417568054904" lon="8.637154675931317"><ele>16.0</ele><time>2026-04-26T13:45:01.851Z</time></trkpt><trkpt lat="39.98627280380136" lon="8.636971535395046"><ele>16.0</ele><time>2026-04-26T13:45:02.851Z</time></trkpt><trkpt lat="39.9861258690451" lon="8.636787812031605"><ele>16.0</ele><time>2026-04-26T13:45:03.851Z</time></trkpt><trkpt lat="39.985977617499415" lon="8.636603383278345"><ele>16.0</ele><time>2026-04-26T13:45:04.851Z</time></trkpt><trkpt lat="39.98583219056416" lon="8.636417082294173"><ele>16.0</ele><time>2026-04-26T13:45:05.851Z</time></trkpt><trkpt lat="39.98568927798466" lon="8.636233852728234"><ele>16.666666666666664</ele><time>2026-04-26T13:45:06.851Z</time></trkpt><trkpt lat="39.985546083953935" lon="8.636053276826484"><ele>17.333333333333332</ele><time>2026-04-26T13:45:07.851Z</time></trkpt><trkpt lat="39.98540413865334" lon="8.635873794392495"><ele>18.0</ele><time>2026-04-26T13:45:08.851Z</time></trkpt><trkpt lat="39.98526318011782" lon="8.635694169802658"><ele>18.0</ele><time>2026-04-26T13:45:09.851Z</time></trkpt><trkpt lat="39.985123102283865" lon="8.635513736795014"><ele>18.0</ele><time>2026-04-26T13:45:10.851Z</time></trkpt><trkpt lat="39.98498332263934" lon="8.635334143506032"><ele>18.0</ele><time>2026-04-26T13:45:11.851Z</time></trkpt><trkpt lat="39.98484593542344" lon="8.635152344905157"><ele>17.666666666666668</ele><time>2026-04-26T13:45:12.851Z</time></trkpt><trkpt lat="39.984708655492035" lon="8.634970788015199"><ele>17.333333333333336</ele><time>2026-04-26T13:45:13.851Z</time></trkpt><trkpt lat="39.98456713777177" lon="8.63478938739982"><ele>17.0</ele><time>2026-04-26T13:45:14.851Z</time></trkpt><trkpt lat="39.98442496596578" lon="8.634608955222664"><ele>16.666666666666668</ele><time>2026-04-26T13:45:15.851Z</time></trkpt><trkpt lat="39.98428364018049" lon="8.634426191652848"><ele>16.333333333333332</ele><time>2026-04-26T13:45:16.851Z</time></trkpt><trkpt lat="39.98413978353675" lon="8.634241021243009"><ele>16.0</ele><time>2026-04-26T13:45:17.851Z</time></trkpt><trkpt lat="39.9839978490377" lon="8.634053102618637"><ele>16.333333333333332</ele><time>2026-04-26T13:45:18.851Z</time></trkpt><trkpt lat="39.98385482810555" lon="8.633871685099729"><ele>16.666666666666668</ele><time>2026-04-26T13:45:19.851Z</time></trkpt><trkpt lat="39.98371399452119" lon="8.633690269421479"><ele>17.0</ele><time>2026-04-26T13:45:20.851Z</time></trkpt><trkpt lat="39.98356987837859" lon="8.633510113244135"><ele>17.0</ele><time>2026-04-26T13:45:21.851Z</time></trkpt><trkpt lat="39.98342504576957" lon="8.633332521135523"><ele>17.0</ele><time>2026-04-26T13:45:22.851Z</time></trkpt><trkpt lat="39.983276239818416" lon="8.633155591727451"><ele>17.0</ele><time>2026-04-26T13:45:23.851Z</time></trkpt><trkpt lat="39.9831281682605" lon="8.632977809877124"><ele>17.333333333333336</ele><time>2026-04-26T13:45:24.851Z</time></trkpt><trkpt lat="39.982978994468084" lon="8.632804477146461"><ele>17.666666666666668</ele><time>2026-04-26T13:45:25.851Z</time></trkpt><trkpt lat="39.982823817488686" lon="8.632634467339189"><ele>18.0</ele><time>2026-04-26T13:45:26.851Z</time></trkpt><trkpt lat="39.98266868696426" lon="8.632465937677644"><ele>19.0</ele><time>2026-04-26T13:45:27.851Z</time></trkpt><trkpt lat="39.98251211075773" lon="8.632298936564098"><ele>20.0</ele><time>2026-04-26T13:45:28.851Z</time></trkpt><trkpt lat="39.98235231305049" lon="8.632134952795457"><ele>21.0</ele><time>2026-04-26T13:45:29.851Z</time></trkpt><trkpt lat="39.98219099145946" lon="8.631975280735652"><ele>20.333333333333332</ele><time>2026-04-26T13:45:30.851Z</time></trkpt><trkpt lat="39.982029361075305" lon="8.631819170372792"><ele>19.666666666666664</ele><time>2026-04-26T13:45:31.851Z</time></trkpt><trkpt lat="39.98186117519138" lon="8.631664690624806"><ele>19.0</ele><time>2026-04-26T13:45:32.851Z</time></trkpt><trkpt lat="39.98169237776667" lon="8.63151849094222"><ele>19.0</ele><time>2026-04-26T13:45:33.851Z</time></trkpt><trkpt lat="39.98152129353402" lon="8.631374229484429"><ele>19.0</ele><time>2026-04-26T13:45:34.851Z</time></trkpt><trkpt lat="39.98134897910707" lon="8.631236944842794"><ele>19.0</ele><time>2026-04-26T13:45:35.851Z</time></trkpt><trkpt lat="39.981173392224356" lon="8.631106615706475"><ele>19.0</ele><time>2026-04-26T13:45:36.851Z</time></trkpt><trkpt lat="39.98099774958844" lon="8.630975958822905"><ele>19.0</ele><time>2026-04-26T13:45:37.851Z</time></trkpt><trkpt lat="39.98082059555233" lon="8.63084989940457"><ele>19.0</ele><time>2026-04-26T13:45:38.851Z</time></trkpt><trkpt lat="39.98064058882675" lon="8.630724944402951"><ele>19.666666666666664</ele><time>2026-04-26T13:45:39.851Z</time></trkpt><trkpt lat="39.98045750667823" lon="8.630608849826036"><ele>20.333333333333332</ele><time>2026-04-26T13:45:40.851Z</time></trkpt><trkpt lat="39.98027481296758" lon="8.630498247315114"><ele>21.0</ele><time>2026-04-26T13:45:41.851Z</time></trkpt><trkpt lat="39.98008802651538" lon="8.630390386361299"><ele>20.333333333333332</ele><time>2026-04-26T13:45:42.851Z</time></trkpt><trkpt lat="39.979899245785546" lon="8.630283157375521"><ele>19.666666666666664</ele><time>2026-04-26T13:45:43.851Z</time></trkpt><trkpt lat="39.979706139576216" lon="8.630182392877474"><ele>19.0</ele><time>2026-04-26T13:45:44.851Z</time></trkpt><trkpt lat="39.97951376683666" lon="8.630081440024245"><ele>19.0</ele><time>2026-04-26T13:45:45.851Z</time></trkpt><trkpt lat="39.979321719663744" lon="8.62997984855977"><ele>19.0</ele><time>2026-04-26T13:45:46.851Z</time></trkpt><trkpt lat="39.97912798735015" lon="8.62988414316829"><ele>19.0</ele><time>2026-04-26T13:45:47.851Z</time></trkpt><trkpt lat="39.978934075355895" lon="8.629787685124318"><ele>19.666666666666664</ele><time>2026-04-26T13:45:48.851Z</time></trkpt><trkpt lat="39.978738477660585" lon="8.629692345323722"><ele>20.333333333333332</ele><time>2026-04-26T13:45:49.851Z</time></trkpt><trkpt lat="39.978544959776826" lon="8.62959419139497"><ele>21.0</ele><time>2026-04-26T13:45:50.851Z</time></trkpt><trkpt lat="39.978349962759516" lon="8.629497886376184"><ele>20.333333333333332</ele><time>2026-04-26T13:45:51.851Z</time></trkpt><trkpt lat="39.97815815922868" lon="8.62940069597841"><ele>19.666666666666664</ele><time>2026-04-26T13:45:52.851Z</time></trkpt><trkpt lat="39.97796667640618" lon="8.629304568485422"><ele>19.0</ele><time>2026-04-26T13:45:53.851Z</time></trkpt><trkpt lat="39.97777232361683" lon="8.629214533407277"><ele>19.0</ele><time>2026-04-26T13:45:54.851Z</time></trkpt><trkpt lat="39.97758102770837" lon="8.629115455352183"><ele>19.0</ele><time>2026-04-26T13:45:55.851Z</time></trkpt><trkpt lat="39.97738932946938" lon="8.629020009435141"><ele>19.0</ele><time>2026-04-26T13:45:56.851Z</time></trkpt><trkpt lat="39.97720115072515" lon="8.62892700289744"><ele>18.666666666666664</ele><time>2026-04-26T13:45:57.851Z</time></trkpt><trkpt lat="39.97701243667971" lon="8.628836294215072"><ele>18.333333333333332</ele><time>2026-04-26T13:45:58.851Z</time></trkpt><trkpt lat="39.9768269793013" lon="8.628744540931025"><ele>18.0</ele><time>2026-04-26T13:45:59.851Z</time></trkpt><trkpt lat="39.97664319553222" lon="8.628653078412658"><ele>17.0</ele><time>2026-04-26T13:46:00.851Z</time></trkpt><trkpt lat="39.97646044311423" lon="8.628565188030489"><ele>16.0</ele><time>2026-04-26T13:46:01.851Z</time></trkpt><trkpt lat="39.97627987455006" lon="8.628477031965907"><ele>15.0</ele><time>2026-04-26T13:46:02.851Z</time></trkpt><trkpt lat="39.97609985804089" lon="8.628390542297064"><ele>15.0</ele><time>2026-04-26T13:46:03.851Z</time></trkpt><trkpt lat="39.975925576310765" lon="8.628302953227072"><ele>15.0</ele><time>2026-04-26T13:46:04.851Z</time></trkpt><trkpt lat="39.97574990978044" lon="8.628213005103097"><ele>15.0</ele><time>2026-04-26T13:46:05.851Z</time></trkpt><trkpt lat="39.975572912564964" lon="8.628125389939575"><ele>16.0</ele><time>2026-04-26T13:46:06.851Z</time></trkpt><trkpt lat="39.975392950299465" lon="8.628036715209213"><ele>17.0</ele><time>2026-04-26T13:46:07.852Z</time></trkpt><trkpt lat="39.975215978830065" lon="8.62794882636401"><ele>18.0</ele><time>2026-04-26T13:46:08.852Z</time></trkpt><trkpt lat="39.97503424436089" lon="8.627858044392726"><ele>19.0</ele><time>2026-04-26T13:46:09.852Z</time></trkpt><trkpt lat="39.97485177738843" lon="8.627766458586741"><ele>20.0</ele><time>2026-04-26T13:46:10.852Z</time></trkpt><trkpt lat="39.97467049448084" lon="8.627674807244265"><ele>21.0</ele><time>2026-04-26T13:46:11.852Z</time></trkpt><trkpt lat="39.97448349056671" lon="8.627584687642404"><ele>21.0</ele><time>2026-04-26T13:46:12.852Z</time></trkpt><trkpt lat="39.974296648568384" lon="8.627496276214737"><ele>21.0</ele><time>2026-04-26T13:46:13.852Z</time></trkpt><trkpt lat="39.97411266456626" lon="8.627409765261534"><ele>21.0</ele><time>2026-04-26T13:46:14.852Z</time></trkpt><trkpt lat="39.97393024261364" lon="8.627321782760266"><ele>22.0</ele><time>2026-04-26T13:46:15.852Z</time></trkpt><trkpt lat="39.97374489086097" lon="8.627233789946603"><ele>23.0</ele><time>2026-04-26T13:46:16.852Z</time></trkpt><trkpt lat="39.973559915152286" lon="8.627146258399197"><ele>24.0</ele><time>2026-04-26T13:46:17.852Z</time></trkpt><trkpt lat="39.973377848525836" lon="8.627055838938972"><ele>24.666666666666664</ele><time>2026-04-26T13:46:18.852Z</time></trkpt><trkpt lat="39.97320142397042" lon="8.626964337564731"><ele>25.333333333333332</ele><time>2026-04-26T13:46:19.852Z</time></trkpt><trkpt lat="39.97302095483134" lon="8.626874629436935"><ele>26.0</ele><time>2026-04-26T13:46:20.852Z</time></trkpt><trkpt lat="39.9728413569794" lon="8.62678344155123"><ele>26.0</ele><time>2026-04-26T13:46:21.852Z</time></trkpt><trkpt lat="39.972659741743314" lon="8.626689998689276"><ele>26.0</ele><time>2026-04-26T13:46:22.852Z</time></trkpt><trkpt lat="39.97248257089327" lon="8.626597879951165"><ele>26.0</ele><time>2026-04-26T13:46:23.852Z</time></trkpt><trkpt lat="39.97231064447296" lon="8.626506355665406"><ele>26.333333333333332</ele><time>2026-04-26T13:46:24.852Z</time></trkpt><trkpt lat="39.97213648707728" lon="8.626414481027084"><ele>26.666666666666664</ele><time>2026-04-26T13:46:25.852Z</time></trkpt><trkpt lat="39.97196157818764" lon="8.62632107555062"><ele>27.0</ele><time>2026-04-26T13:46:26.852Z</time></trkpt><trkpt lat="39.97178836841087" lon="8.626223573198994"><ele>27.0</ele><time>2026-04-26T13:46:27.852Z</time></trkpt><trkpt lat="39.97161160244061" lon="8.626117528665477"><ele>27.0</ele><time>2026-04-26T13:46:28.852Z</time></trkpt><trkpt lat="39.971438449500184" lon="8.626006153473288"><ele>27.0</ele><time>2026-04-26T13:46:29.852Z</time></trkpt><trkpt lat="39.97127434346704" lon="8.62589309753016"><ele>27.0</ele><time>2026-04-26T13:46:30.852Z</time></trkpt><trkpt lat="39.971112540471495" lon="8.625778267621055"><ele>27.0</ele><time>2026-04-26T13:46:31.852Z</time></trkpt><trkpt lat="39.97095786725377" lon="8.62565892576771"><ele>27.0</ele><time>2026-04-26T13:46:32.852Z</time></trkpt><trkpt lat="39.970810999793095" lon="8.625524263062953"><ele>27.0</ele><time>2026-04-26T13:46:33.852Z</time></trkpt><trkpt lat="39.97068062462405" lon="8.625395700256577"><ele>27.0</ele><time>2026-04-26T13:46:34.852Z</time></trkpt><trkpt lat="39.97054271598096" lon="8.625284119913912"><ele>27.0</ele><time>2026-04-26T13:46:35.852Z</time></trkpt><trkpt lat="39.970401940186605" lon="8.625167495304472"><ele>27.0</ele><time>2026-04-26T13:46:36.852Z</time></trkpt><trkpt lat="39.97026037670751" lon="8.625046959287173"><ele>27.0</ele><time>2026-04-26T13:46:37.852Z</time></trkpt><trkpt lat="39.97011978582756" lon="8.624926295798291"><ele>27.0</ele><time>2026-04-26T13:46:38.852Z</time></trkpt><trkpt lat="39.9697777483504" lon="8.62472171821308"><ele>28.0</ele><time>2026-04-26T13:46:39.852Z</time></trkpt><trkpt lat="39.96961770690823" lon="8.624582033395212"><ele>29.0</ele><time>2026-04-26T13:46:40.852Z</time></trkpt><trkpt lat="39.96945605820242" lon="8.624440190187942"><ele>30.0</ele><time>2026-04-26T13:46:41.852Z</time></trkpt><trkpt lat="39.96929386205817" lon="8.624295845176372"><ele>30.666666666666664</ele><time>2026-04-26T13:46:42.852Z</time></trkpt><trkpt lat="39.96913115118184" lon="8.624151051920869"><ele>31.333333333333332</ele><time>2026-04-26T13:46:43.851Z</time></trkpt><trkpt lat="39.96896880316188" lon="8.624007359353032"><ele>32.0</ele><time>2026-04-26T13:46:44.851Z</time></trkpt><trkpt lat="39.96880347891116" lon="8.623859952402762"><ele>32.0</ele><time>2026-04-26T13:46:45.851Z</time></trkpt><trkpt lat="39.968636492246155" lon="8.623720283797262"><ele>32.0</ele><time>2026-04-26T13:46:46.851Z</time></trkpt><trkpt lat="39.96847006616439" lon="8.623578680114951"><ele>32.0</ele><time>2026-04-26T13:46:47.851Z</time></trkpt><trkpt lat="39.968303510327964" lon="8.623436947467143"><ele>31.0</ele><time>2026-04-26T13:46:48.851Z</time></trkpt><trkpt lat="39.96813726183342" lon="8.623292467663388"><ele>30.0</ele><time>2026-04-26T13:46:49.851Z</time></trkpt><trkpt lat="39.9679703127947" lon="8.62314729513266"><ele>29.0</ele><time>2026-04-26T13:46:50.851Z</time></trkpt><trkpt lat="39.96780258880995" lon="8.623002087214603"><ele>29.0</ele><time>2026-04-26T13:46:51.851Z</time></trkpt><trkpt lat="39.96763291455248" lon="8.622856994879438"><ele>29.0</ele><time>2026-04-26T13:46:52.851Z</time></trkpt><trkpt lat="39.967467681717835" lon="8.622711599402592"><ele>29.0</ele><time>2026-04-26T13:46:53.85Z</time></trkpt><trkpt lat="39.96730295473189" lon="8.622568311149092"><ele>28.333333333333332</ele><time>2026-04-26T13:46:54.85Z</time></trkpt><trkpt lat="39.96713642308496" lon="8.62242573057991"><ele>27.666666666666664</ele><time>2026-04-26T13:46:55.851Z</time></trkpt><trkpt lat="39.96697361714437" lon="8.622281167806452"><ele>27.0</ele><time>2026-04-26T13:46:56.851Z</time></trkpt><trkpt lat="39.966811398728204" lon="8.622142187353761"><ele>28.0</ele><time>2026-04-26T13:46:57.851Z</time></trkpt><trkpt lat="39.966650142039995" lon="8.622001553227575"><ele>29.0</ele><time>2026-04-26T13:46:58.851Z</time></trkpt><trkpt lat="39.966486167827455" lon="8.621863808386014"><ele>30.0</ele><time>2026-04-26T13:46:59.851Z</time></trkpt><trkpt lat="39.96632151271908" lon="8.621726834242233"><ele>30.0</ele><time>2026-04-26T13:47:00.851Z</time></trkpt><trkpt lat="39.96615623684143" lon="8.621581590039854"><ele>30.0</ele><time>2026-04-26T13:47:01.851Z</time></trkpt><trkpt lat="39.96599457453184" lon="8.621439860460484"><ele>30.0</ele><time>2026-04-26T13:47:02.851Z</time></trkpt><trkpt lat="39.96583100211221" lon="8.621295514047558"><ele>30.0</ele><time>2026-04-26T13:47:03.851Z</time></trkpt><trkpt lat="39.96566987208736" lon="8.621153621188821"><ele>30.0</ele><time>2026-04-26T13:47:04.851Z</time></trkpt><trkpt lat="39.965510309679274" lon="8.621014083309664"><ele>30.0</ele><time>2026-04-26T13:47:05.851Z</time></trkpt><trkpt lat="39.96535390579504" lon="8.620876830953843"><ele>30.0</ele><time>2026-04-26T13:47:06.851Z</time></trkpt><trkpt lat="39.965194404249274" lon="8.620741270578398"><ele>30.0</ele><time>2026-04-26T13:47:07.851Z</time></trkpt><trkpt lat="39.96503766818657" lon="8.620604128468141"><ele>30.0</ele><time>2026-04-26T13:47:08.851Z</time></trkpt><trkpt lat="39.964876872183446" lon="8.62046837654043"><ele>30.333333333333336</ele><time>2026-04-26T13:47:09.851Z</time></trkpt><trkpt lat="39.96471704954632" lon="8.620331304105166"><ele>30.666666666666668</ele><time>2026-04-26T13:47:10.851Z</time></trkpt><trkpt lat="39.964555793418235" lon="8.62019289916364"><ele>31.0</ele><time>2026-04-26T13:47:11.851Z</time></trkpt><trkpt lat="39.964395013386934" lon="8.620050187840416"><ele>31.0</ele><time>2026-04-26T13:47:12.851Z</time></trkpt><trkpt lat="39.96423160773235" lon="8.619911415430435"><ele>31.0</ele><time>2026-04-26T13:47:13.851Z</time></trkpt><trkpt lat="39.964072424158395" lon="8.619770959052323"><ele>31.0</ele><time>2026-04-26T13:47:14.851Z</time></trkpt><trkpt lat="39.963911504342725" lon="8.619626293957438"><ele>31.666666666666668</ele><time>2026-04-26T13:47:15.851Z</time></trkpt><trkpt lat="39.963751919019444" lon="8.619485369697776"><ele>32.333333333333336</ele><time>2026-04-26T13:47:16.851Z</time></trkpt><trkpt lat="39.96359331184829" lon="8.619346213859751"><ele>33.0</ele><time>2026-04-26T13:47:17.851Z</time></trkpt><trkpt lat="39.96343354035386" lon="8.61920812935645"><ele>32.666666666666664</ele><time>2026-04-26T13:47:18.851Z</time></trkpt><trkpt lat="39.963272365375765" lon="8.619073093278859"><ele>32.33333333333333</ele><time>2026-04-26T13:47:19.851Z</time></trkpt><trkpt lat="39.96311157586557" lon="8.618941850594485"><ele>32.0</ele><time>2026-04-26T13:47:20.851Z</time></trkpt><trkpt lat="39.962957435222286" lon="8.618803062921305"><ele>32.0</ele><time>2026-04-26T13:47:21.851Z</time></trkpt><trkpt lat="39.96279134021717" lon="8.61867445330871"><ele>32.0</ele><time>2026-04-26T13:47:22.851Z</time></trkpt><trkpt lat="39.96262696644688" lon="8.618540769219184"><ele>32.0</ele><time>2026-04-26T13:47:23.851Z</time></trkpt><trkpt lat="39.9624613818516" lon="8.61841323262794"><ele>31.666666666666664</ele><time>2026-04-26T13:47:24.851Z</time></trkpt><trkpt lat="39.962296975171185" lon="8.618286908994653"><ele>31.333333333333336</ele><time>2026-04-26T13:47:25.851Z</time></trkpt><trkpt lat="39.96213092185742" lon="8.618162662856141"><ele>31.0</ele><time>2026-04-26T13:47:26.851Z</time></trkpt><trkpt lat="39.96196669914059" lon="8.618039653755517"><ele>31.0</ele><time>2026-04-26T13:47:27.851Z</time></trkpt><trkpt lat="39.961814921045175" lon="8.617925318277344"><ele>31.0</ele><time>2026-04-26T13:47:28.851Z</time></trkpt><trkpt lat="39.961653733436854" lon="8.617810755841445"><ele>31.0</ele><time>2026-04-26T13:47:29.851Z</time></trkpt><trkpt lat="39.96149738478267" lon="8.617706324440126"><ele>31.0</ele><time>2026-04-26T13:47:30.851Z</time></trkpt><trkpt lat="39.96134834684503" lon="8.617614234923108"><ele>31.0</ele><time>2026-04-26T13:47:31.851Z</time></trkpt><trkpt lat="39.96120364015692" lon="8.617530299701654"><ele>31.0</ele><time>2026-04-26T13:47:32.851Z</time></trkpt><trkpt lat="39.96105780660167" lon="8.617448124489547"><ele>31.0</ele><time>2026-04-26T13:47:33.851Z</time></trkpt><trkpt lat="39.960921625230085" lon="8.617373838873622"><ele>31.0</ele><time>2026-04-26T13:47:34.851Z</time></trkpt><trkpt lat="39.96079244429477" lon="8.617299420357357"><ele>31.0</ele><time>2026-04-26T13:47:35.851Z</time></trkpt><trkpt lat="39.96067079757188" lon="8.617216704160983"><ele>31.0</ele><time>2026-04-26T13:47:36.851Z</time></trkpt><trkpt lat="39.96055345962807" lon="8.617125124851103"><ele>30.5</ele><time>2026-04-26T13:47:37.851Z</time></trkpt><trkpt lat="39.9604401077898" lon="8.617016170829677"><ele>30.0</ele><time>2026-04-26T13:47:38.851Z</time></trkpt><trkpt lat="39.96033289447178" lon="8.616896961552337"><ele>29.5</ele><time>2026-04-26T13:47:39.851Z</time></trkpt><trkpt lat="39.96023202427176" lon="8.616764127016037"><ele>29.0</ele><time>2026-04-26T13:47:40.851Z</time></trkpt><trkpt lat="39.960133613017454" lon="8.616618765474795"><ele>28.75</ele><time>2026-04-26T13:47:41.851Z</time></trkpt><trkpt lat="39.960035609042706" lon="8.616474763103955"><ele>28.5</ele><time>2026-04-26T13:47:42.851Z</time></trkpt><trkpt lat="39.959934682967024" lon="8.616341155918079"><ele>28.25</ele><time>2026-04-26T13:47:43.851Z</time></trkpt><trkpt lat="39.95982692376983" lon="8.616213789419032"><ele>28.0</ele><time>2026-04-26T13:47:44.851Z</time></trkpt><trkpt lat="39.959714509844105" lon="8.616093157180396"><ele>27.5</ele><time>2026-04-26T13:47:45.851Z</time></trkpt><trkpt lat="39.9595946548492" lon="8.615982050020548"><ele>27.0</ele><time>2026-04-26T13:47:46.851Z</time></trkpt><trkpt lat="39.95947321627827" lon="8.615881466184357"><ele>26.5</ele><time>2026-04-26T13:47:47.851Z</time></trkpt><trkpt lat="39.95935651308972" lon="8.615783896081238"><ele>26.0</ele><time>2026-04-26T13:47:48.851Z</time></trkpt><trkpt lat="39.95924373910725" lon="8.615688425319638"><ele>26.0</ele><time>2026-04-26T13:47:49.851Z</time></trkpt><trkpt lat="39.95913893640522" lon="8.615593482902057"><ele>26.0</ele><time>2026-04-26T13:47:50.851Z</time></trkpt><trkpt lat="39.959041546234786" lon="8.615497438293445"><ele>26.0</ele><time>2026-04-26T13:47:51.851Z</time></trkpt><trkpt lat="39.958950008528866" lon="8.615399930936851"><ele>26.0</ele><time>2026-04-26T13:47:52.851Z</time></trkpt><trkpt lat="39.95887727082209" lon="8.615307165861374"><ele>25.666666666666664</ele><time>2026-04-26T13:47:53.851Z</time></trkpt><trkpt lat="39.95882217858752" lon="8.615217842435158"><ele>25.333333333333332</ele><time>2026-04-26T13:47:54.851Z</time></trkpt><trkpt lat="39.95877976553173" lon="8.615131165488"><ele>25.0</ele><time>2026-04-26T13:47:55.851Z</time></trkpt><trkpt lat="39.958765219292864" lon="8.61503819120676"><ele>24.666666666666664</ele><time>2026-04-26T13:47:56.851Z</time></trkpt><trkpt lat="39.95875024610344" lon="8.614946638063298"><ele>24.333333333333332</ele><time>2026-04-26T13:47:57.851Z</time></trkpt><trkpt lat="39.958720209873526" lon="8.61485919953916"><ele>24.0</ele><time>2026-04-26T13:47:58.851Z</time></trkpt><trkpt lat="39.95867035658937" lon="8.614799354299922"><ele>24.0</ele><time>2026-04-26T13:47:59.851Z</time></trkpt><trkpt lat="39.95861124541007" lon="8.614749092149834"><ele>24.0</ele><time>2026-04-26T13:48:00.851Z</time></trkpt><trkpt lat="39.958543488684924" lon="8.61472126500259"><ele>24.0</ele><time>2026-04-26T13:48:01.851Z</time></trkpt><trkpt lat="39.958474094833385" lon="8.614720621979464"><ele>24.0</ele><time>2026-04-26T13:48:02.851Z</time></trkpt><trkpt lat="39.95839805464352" lon="8.614713584367186"><ele>24.0</ele><time>2026-04-26T13:48:03.851Z</time></trkpt><trkpt lat="39.958312768316084" lon="8.614707411965686"><ele>24.0</ele><time>2026-04-26T13:48:04.851Z</time></trkpt><trkpt lat="39.958225385189465" lon="8.614694117828808"><ele>24.0</ele><time>2026-04-26T13:48:05.851Z</time></trkpt><trkpt lat="39.95813540873529" lon="8.614662579415574"><ele>24.0</ele><time>2026-04-26T13:48:06.851Z</time></trkpt><trkpt lat="39.95804225073213" lon="8.614607145000084"><ele>24.0</ele><time>2026-04-26T13:48:07.851Z</time></trkpt><trkpt lat="39.95794542886453" lon="8.614533243207509"><ele>24.0</ele><time>2026-04-26T13:48:08.851Z</time></trkpt><trkpt lat="39.957850574771726" lon="8.614451197150057"><ele>24.0</ele><time>2026-04-26T13:48:09.851Z</time></trkpt><trkpt lat="39.95774929966287" lon="8.614368599354195"><ele>24.0</ele><time>2026-04-26T13:48:10.851Z</time></trkpt><trkpt lat="39.957646945697945" lon="8.614281203822014"><ele>24.0</ele><time>2026-04-26T13:48:11.851Z</time></trkpt><trkpt lat="39.95754099526248" lon="8.614187683990442"><ele>24.0</ele><time>2026-04-26T13:48:12.851Z</time></trkpt><trkpt lat="39.95743613492488" lon="8.614095328048553"><ele>24.0</ele><time>2026-04-26T13:48:13.851Z</time></trkpt><trkpt lat="39.95732944572763" lon="8.613997533198997"><ele>24.25</ele><time>2026-04-26T13:48:14.851Z</time></trkpt><trkpt lat="39.95721843193177" lon="8.613900485596856"><ele>24.5</ele><time>2026-04-26T13:48:15.851Z</time></trkpt><trkpt lat="39.95710537148467" lon="8.613800613648316"><ele>24.75</ele><time>2026-04-26T13:48:16.851Z</time></trkpt><trkpt lat="39.95698845920557" lon="8.613698265882201"><ele>25.0</ele><time>2026-04-26T13:48:17.851Z</time></trkpt><trkpt lat="39.956868995845284" lon="8.61359591603528"><ele>25.0</ele><time>2026-04-26T13:48:18.851Z</time></trkpt><trkpt lat="39.95674392028873" lon="8.613491829149167"><ele>25.0</ele><time>2026-04-26T13:48:19.851Z</time></trkpt><trkpt lat="39.956623002669424" lon="8.6133831332285"><ele>25.0</ele><time>2026-04-26T13:48:20.851Z</time></trkpt><trkpt lat="39.95649806833691" lon="8.613273058576489"><ele>25.0</ele><time>2026-04-26T13:48:21.851Z</time></trkpt><trkpt lat="39.95637094629867" lon="8.6131646384497"><ele>24.666666666666668</ele><time>2026-04-26T13:48:22.851Z</time></trkpt><trkpt lat="39.95624375542371" lon="8.613057248977467"><ele>24.333333333333336</ele><time>2026-04-26T13:48:23.851Z</time></trkpt><trkpt lat="39.95611699057958" lon="8.612951858626348"><ele>24.0</ele><time>2026-04-26T13:48:24.851Z</time></trkpt><trkpt lat="39.95598727310718" lon="8.612839529185807"><ele>23.333333333333332</ele><time>2026-04-26T13:48:25.851Z</time></trkpt><trkpt lat="39.955859442449594" lon="8.612727868649982"><ele>22.666666666666664</ele><time>2026-04-26T13:48:26.851Z</time></trkpt><trkpt lat="39.95572693338653" lon="8.612609581111267"><ele>22.0</ele><time>2026-04-26T13:48:27.851Z</time></trkpt><trkpt lat="39.95559842778367" lon="8.612496836935254"><ele>22.0</ele><time>2026-04-26T13:48:28.851Z</time></trkpt><trkpt lat="39.95546723849465" lon="8.612375263683774"><ele>22.0</ele><time>2026-04-26T13:48:29.851Z</time></trkpt><trkpt lat="39.955330832447615" lon="8.612257625835792"><ele>22.0</ele><time>2026-04-26T13:48:30.851Z</time></trkpt><trkpt lat="39.95519881991665" lon="8.612146180678575"><ele>22.0</ele><time>2026-04-26T13:48:31.851Z</time></trkpt><trkpt lat="39.95506270490663" lon="8.612028220933452"><ele>22.0</ele><time>2026-04-26T13:48:32.851Z</time></trkpt><trkpt lat="39.95493095419253" lon="8.61191721312522"><ele>22.0</ele><time>2026-04-26T13:48:33.851Z</time></trkpt><trkpt lat="39.954791823435" lon="8.611798262570716"><ele>20.333333333333332</ele><time>2026-04-26T13:48:34.851Z</time></trkpt><trkpt lat="39.95465692790807" lon="8.611678123930854"><ele>18.666666666666668</ele><time>2026-04-26T13:48:35.851Z</time></trkpt><trkpt lat="39.95452286324756" lon="8.611567756932867"><ele>17.0</ele><time>2026-04-26T13:48:36.851Z</time></trkpt><trkpt lat="39.954379936192566" lon="8.611446588212655"><ele>17.0</ele><time>2026-04-26T13:48:37.851Z</time></trkpt><trkpt lat="39.95424110240822" lon="8.611329836495852"><ele>17.0</ele><time>2026-04-26T13:48:38.851Z</time></trkpt><trkpt lat="39.9541120873009" lon="8.6112219997813"><ele>17.0</ele><time>2026-04-26T13:48:39.851Z</time></trkpt><trkpt lat="39.953985705329266" lon="8.61109975460322"><ele>17.0</ele><time>2026-04-26T13:48:40.851Z</time></trkpt><trkpt lat="39.95384619095146" lon="8.610979913274724"><ele>17.0</ele><time>2026-04-26T13:48:41.851Z</time></trkpt><trkpt lat="39.95371017022685" lon="8.610862557050007"><ele>17.0</ele><time>2026-04-26T13:48:42.851Z</time></trkpt><trkpt lat="39.95357604185877" lon="8.61073903960245"><ele>17.0</ele><time>2026-04-26T13:48:43.851Z</time></trkpt><trkpt lat="39.95344096240587" lon="8.610628161777187"><ele>17.0</ele><time>2026-04-26T13:48:44.851Z</time></trkpt><trkpt lat="39.953304057456215" lon="8.610505586249046"><ele>17.0</ele><time>2026-04-26T13:48:45.851Z</time></trkpt><trkpt lat="39.95316491860405" lon="8.610391708277625"><ele>17.0</ele><time>2026-04-26T13:48:46.851Z</time></trkpt><trkpt lat="39.9530294231379" lon="8.610277385651486"><ele>17.0</ele><time>2026-04-26T13:48:47.851Z</time></trkpt><trkpt lat="39.95288946999196" lon="8.61016113901522"><ele>17.0</ele><time>2026-04-26T13:48:48.851Z</time></trkpt><trkpt lat="39.952752158854345" lon="8.610041410284698"><ele>17.0</ele><time>2026-04-26T13:48:49.85Z</time></trkpt><trkpt lat="39.952613844652554" lon="8.609918743167185"><ele>17.0</ele><time>2026-04-26T13:48:50.85Z</time></trkpt><trkpt lat="39.95247423482469" lon="8.60979524005732"><ele>17.0</ele><time>2026-04-26T13:48:51.85Z</time></trkpt><trkpt lat="39.95233443478622" lon="8.609672945048088"><ele>17.0</ele><time>2026-04-26T13:48:52.851Z</time></trkpt><trkpt lat="39.95219101801783" lon="8.609553133227818"><ele>17.0</ele><time>2026-04-26T13:48:53.85Z</time></trkpt><trkpt lat="39.95205102672395" lon="8.609428831520589"><ele>17.0</ele><time>2026-04-26T13:48:54.85Z</time></trkpt><trkpt lat="39.9519137266049" lon="8.609308897949711"><ele>17.0</ele><time>2026-04-26T13:48:55.851Z</time></trkpt><trkpt lat="39.95176916669658" lon="8.609190020844629"><ele>17.0</ele><time>2026-04-26T13:48:56.85Z</time></trkpt><trkpt lat="39.95162387649777" lon="8.609066358076044"><ele>17.0</ele><time>2026-04-26T13:48:57.85Z</time></trkpt><trkpt lat="39.95148151562146" lon="8.608944845972418"><ele>16.666666666666668</ele><time>2026-04-26T13:48:58.85Z</time></trkpt><trkpt lat="39.95133599984749" lon="8.608815612011632"><ele>16.333333333333332</ele><time>2026-04-26T13:48:59.85Z</time></trkpt><trkpt lat="39.95119389044666" lon="8.608687411790537"><ele>16.0</ele><time>2026-04-26T13:49:00.85Z</time></trkpt><trkpt lat="39.95104595163161" lon="8.608559743545092"><ele>16.0</ele><time>2026-04-26T13:49:01.85Z</time></trkpt><trkpt lat="39.95090416562139" lon="8.608437331401284"><ele>16.0</ele><time>2026-04-26T13:49:02.85Z</time></trkpt><trkpt lat="39.950754894276265" lon="8.608314446980335"><ele>16.0</ele><time>2026-04-26T13:49:03.85Z</time></trkpt><trkpt lat="39.95061542956598" lon="8.60818435220154"><ele>16.0</ele><time>2026-04-26T13:49:04.85Z</time></trkpt><trkpt lat="39.950466047775556" lon="8.608065746710693"><ele>16.0</ele><time>2026-04-26T13:49:05.85Z</time></trkpt><trkpt lat="39.95032705539593" lon="8.607940045983847"><ele>16.0</ele><time>2026-04-26T13:49:06.85Z</time></trkpt><trkpt lat="39.95017708559052" lon="8.607814904869912"><ele>15.666666666666666</ele><time>2026-04-26T13:49:07.85Z</time></trkpt><trkpt lat="39.950033782906864" lon="8.607689610838342"><ele>15.333333333333332</ele><time>2026-04-26T13:49:08.85Z</time></trkpt><trkpt lat="39.94988585628335" lon="8.607561357260877"><ele>15.0</ele><time>2026-04-26T13:49:09.851Z</time></trkpt><trkpt lat="39.949740149724136" lon="8.607438499447753"><ele>15.0</ele><time>2026-04-26T13:49:10.851Z</time></trkpt><trkpt lat="39.94959032315302" lon="8.6073103592496"><ele>15.0</ele><time>2026-04-26T13:49:11.851Z</time></trkpt><trkpt lat="39.94943997391552" lon="8.607185526248553"><ele>15.0</ele><time>2026-04-26T13:49:12.851Z</time></trkpt><trkpt lat="39.94930355959341" lon="8.607059719620171"><ele>14.666666666666668</ele><time>2026-04-26T13:49:13.851Z</time></trkpt><trkpt lat="39.949153861063515" lon="8.60693647575054"><ele>14.333333333333334</ele><time>2026-04-26T13:49:14.851Z</time></trkpt><trkpt lat="39.94900612356412" lon="8.606811606514253"><ele>14.0</ele><time>2026-04-26T13:49:15.851Z</time></trkpt><trkpt lat="39.948860030549284" lon="8.606682472078763"><ele>14.0</ele><time>2026-04-26T13:49:16.851Z</time></trkpt><trkpt lat="39.948712365177045" lon="8.606557544529995"><ele>14.0</ele><time>2026-04-26T13:49:17.851Z</time></trkpt><trkpt lat="39.94856475343201" lon="8.606427646854454"><ele>14.0</ele><time>2026-04-26T13:49:18.851Z</time></trkpt><trkpt lat="39.94841881247501" lon="8.606298380325567"><ele>13.666666666666668</ele><time>2026-04-26T13:49:19.851Z</time></trkpt><trkpt lat="39.948271903288315" lon="8.60616876389188"><ele>13.333333333333332</ele><time>2026-04-26T13:49:20.851Z</time></trkpt><trkpt lat="39.9481255361626" lon="8.606044967427364"><ele>13.0</ele><time>2026-04-26T13:49:21.851Z</time></trkpt><trkpt lat="39.94798810597621" lon="8.60593168360708"><ele>12.75</ele><time>2026-04-26T13:49:22.851Z</time></trkpt><trkpt lat="39.947855702637696" lon="8.605820715338213"><ele>12.5</ele><time>2026-04-26T13:49:23.851Z</time></trkpt><trkpt lat="39.94773188075674" lon="8.605718037192432"><ele>12.25</ele><time>2026-04-26T13:49:24.851Z</time></trkpt><trkpt lat="39.94761948490733" lon="8.605619194564222"><ele>12.0</ele><time>2026-04-26T13:49:25.851Z</time></trkpt><trkpt lat="39.9475180231506" lon="8.605529360732959"><ele>11.8</ele><time>2026-04-26T13:49:26.851Z</time></trkpt><trkpt lat="39.947435760229496" lon="8.605444526325568"><ele>11.6</ele><time>2026-04-26T13:49:27.851Z</time></trkpt><trkpt lat="39.94736733881056" lon="8.605356732126534"><ele>11.4</ele><time>2026-04-26T13:49:28.851Z</time></trkpt><trkpt lat="39.94730484381273" lon="8.605261858340885"><ele>11.200000000000001</ele><time>2026-04-26T13:49:29.851Z</time></trkpt><trkpt lat="39.94724915680651" lon="8.605169904728369"><ele>11.0</ele><time>2026-04-26T13:49:30.851Z</time></trkpt><trkpt lat="39.94718426020418" lon="8.605097997798834"><ele>11.0</ele><time>2026-04-26T13:49:31.851Z</time></trkpt><trkpt lat="39.94710362384939" lon="8.605038881483514"><ele>11.0</ele><time>2026-04-26T13:49:32.851Z</time></trkpt><trkpt lat="39.94701099177723" lon="8.604997563616301"><ele>11.0</ele><time>2026-04-26T13:49:33.851Z</time></trkpt><trkpt lat="39.9469158836719" lon="8.604960897559923"><ele>11.0</ele><time>2026-04-26T13:49:34.851Z</time></trkpt><trkpt lat="39.94681991824877" lon="8.604905441911065"><ele>11.0</ele><time>2026-04-26T13:49:35.851Z</time></trkpt><trkpt lat="39.94671705053122" lon="8.604825585562205"><ele>11.0</ele><time>2026-04-26T13:49:36.851Z</time></trkpt><trkpt lat="39.9466059249306" lon="8.60474064126298"><ele>11.0</ele><time>2026-04-26T13:49:37.851Z</time></trkpt><trkpt lat="39.94648930263361" lon="8.604645694197405"><ele>11.0</ele><time>2026-04-26T13:49:38.851Z</time></trkpt><trkpt lat="39.94637412840702" lon="8.604545184988876"><ele>11.0</ele><time>2026-04-26T13:49:39.851Z</time></trkpt><trkpt lat="39.94625311345431" lon="8.604450625500283"><ele>11.0</ele><time>2026-04-26T13:49:40.851Z</time></trkpt><trkpt lat="39.946131990418216" lon="8.604349523312484"><ele>11.0</ele><time>2026-04-26T13:49:41.851Z</time></trkpt><trkpt lat="39.946009362248546" lon="8.604247164514195"><ele>11.0</ele><time>2026-04-26T13:49:42.851Z</time></trkpt><trkpt lat="39.945886335746835" lon="8.604139063269615"><ele>11.0</ele><time>2026-04-26T13:49:43.851Z</time></trkpt><trkpt lat="39.945761953934856" lon="8.604028702148016"><ele>11.0</ele><time>2026-04-26T13:49:44.851Z</time></trkpt><trkpt lat="39.945635386681595" lon="8.603916240920162"><ele>11.0</ele><time>2026-04-26T13:49:45.851Z</time></trkpt><trkpt lat="39.94550354353148" lon="8.603808330429464"><ele>11.0</ele><time>2026-04-26T13:49:46.851Z</time></trkpt><trkpt lat="39.94537322730206" lon="8.603700796368312"><ele>11.25</ele><time>2026-04-26T13:49:47.851Z</time></trkpt><trkpt lat="39.94525166194293" lon="8.603584975688696"><ele>11.5</ele><time>2026-04-26T13:49:48.851Z</time></trkpt><trkpt lat="39.94513243739113" lon="8.603469543572952"><ele>11.75</ele><time>2026-04-26T13:49:49.851Z</time></trkpt><trkpt lat="39.94501428312175" lon="8.603358572741817"><ele>12.0</ele><time>2026-04-26T13:49:50.851Z</time></trkpt><trkpt lat="39.944898177025664" lon="8.60324865850703"><ele>12.0</ele><time>2026-04-26T13:49:51.851Z</time></trkpt><trkpt lat="39.94478228254454" lon="8.603142901118273"><ele>12.0</ele><time>2026-04-26T13:49:52.851Z</time></trkpt><trkpt lat="39.94466616271908" lon="8.603038128605744"><ele>12.0</ele><time>2026-04-26T13:49:53.851Z</time></trkpt><trkpt lat="39.94455578417487" lon="8.602932928363337"><ele>12.0</ele><time>2026-04-26T13:49:54.851Z</time></trkpt><trkpt lat="39.944444588924874" lon="8.602833249472914"><ele>12.0</ele><time>2026-04-26T13:49:55.851Z</time></trkpt><trkpt lat="39.944337452293986" lon="8.602737886628242"><ele>12.0</ele><time>2026-04-26T13:49:56.851Z</time></trkpt><trkpt lat="39.9442331254195" lon="8.602630618018894"><ele>12.0</ele><time>2026-04-26T13:49:57.851Z</time></trkpt><trkpt lat="39.94412029402085" lon="8.60251849180445"><ele>12.0</ele><time>2026-04-26T13:49:58.851Z</time></trkpt><trkpt lat="39.94399773400857" lon="8.602413474610401"><ele>12.0</ele><time>2026-04-26T13:49:59.851Z</time></trkpt><trkpt lat="39.94387009950154" lon="8.602306517136935"><ele>12.0</ele><time>2026-04-26T13:50:00.851Z</time></trkpt><trkpt lat="39.94374189255731" lon="8.602204766587263"><ele>12.0</ele><time>2026-04-26T13:50:01.851Z</time></trkpt><trkpt lat="39.943607049371806" lon="8.602094986466675"><ele>12.0</ele><time>2026-04-26T13:50:02.851Z</time></trkpt><trkpt lat="39.94347389616502" lon="8.601981445563545"><ele>12.0</ele><time>2026-04-26T13:50:03.851Z</time></trkpt><trkpt lat="39.94333757953802" lon="8.601868887133524"><ele>12.0</ele><time>2026-04-26T13:50:04.851Z</time></trkpt><trkpt lat="39.94320080687215" lon="8.601742373819011"><ele>12.0</ele><time>2026-04-26T13:50:05.851Z</time></trkpt><trkpt lat="39.94305915877064" lon="8.601617275325639"><ele>12.0</ele><time>2026-04-26T13:50:06.851Z</time></trkpt><trkpt lat="39.9429194254613" lon="8.601489926770496"><ele>12.0</ele><time>2026-04-26T13:50:07.851Z</time></trkpt><trkpt lat="39.942769574719925" lon="8.601379034493279"><ele>12.0</ele><time>2026-04-26T13:50:08.851Z</time></trkpt><trkpt lat="39.94262269580086" lon="8.601264189418112"><ele>12.0</ele><time>2026-04-26T13:50:09.851Z</time></trkpt><trkpt lat="39.94247376900193" lon="8.60115672664514"><ele>12.0</ele><time>2026-04-26T13:50:10.851Z</time></trkpt><trkpt lat="39.94232522631276" lon="8.601044989175598"><ele>12.333333333333332</ele><time>2026-04-26T13:50:11.851Z</time></trkpt><trkpt lat="39.94218264786029" lon="8.60092595928606"><ele>12.666666666666666</ele><time>2026-04-26T13:50:12.851Z</time></trkpt><trkpt lat="39.94203800526322" lon="8.600814233118607"><ele>13.0</ele><time>2026-04-26T13:50:13.851Z</time></trkpt><trkpt lat="39.941894361103934" lon="8.600695065499186"><ele>13.0</ele><time>2026-04-26T13:50:14.851Z</time></trkpt><trkpt lat="39.941754690079065" lon="8.600574524766154"><ele>13.0</ele><time>2026-04-26T13:50:15.851Z</time></trkpt><trkpt lat="39.94161410565341" lon="8.600445113808954"><ele>13.0</ele><time>2026-04-26T13:50:16.851Z</time></trkpt><trkpt lat="39.94146918000617" lon="8.600313605399942"><ele>12.333333333333332</ele><time>2026-04-26T13:50:17.851Z</time></trkpt><trkpt lat="39.94131971380065" lon="8.60018580701287"><ele>11.666666666666666</ele><time>2026-04-26T13:50:18.851Z</time></trkpt><trkpt lat="39.94117308460626" lon="8.600061866100138"><ele>11.0</ele><time>2026-04-26T13:50:19.851Z</time></trkpt><trkpt lat="39.941026204190884" lon="8.599935305304909"><ele>11.666666666666666</ele><time>2026-04-26T13:50:20.851Z</time></trkpt><trkpt lat="39.94087920902358" lon="8.599808008462603"><ele>12.333333333333332</ele><time>2026-04-26T13:50:21.851Z</time></trkpt><trkpt lat="39.94073051217959" lon="8.599680572728385"><ele>13.0</ele><time>2026-04-26T13:50:22.851Z</time></trkpt><trkpt lat="39.94058007563273" lon="8.599548688802615"><ele>13.333333333333332</ele><time>2026-04-26T13:50:23.851Z</time></trkpt><trkpt lat="39.94043282349315" lon="8.599415531945269"><ele>13.666666666666668</ele><time>2026-04-26T13:50:24.851Z</time></trkpt><trkpt lat="39.94028300222557" lon="8.599286177889535"><ele>14.0</ele><time>2026-04-26T13:50:25.851Z</time></trkpt><trkpt lat="39.940134713179106" lon="8.599154420690342"><ele>13.666666666666668</ele><time>2026-04-26T13:50:26.851Z</time></trkpt><trkpt lat="39.93998723833139" lon="8.599023545313587"><ele>13.333333333333332</ele><time>2026-04-26T13:50:27.851Z</time></trkpt><trkpt lat="39.93983536792864" lon="8.598896658388876"><ele>13.0</ele><time>2026-04-26T13:50:28.851Z</time></trkpt><trkpt lat="39.93968639723634" lon="8.59876680481232"><ele>12.666666666666666</ele><time>2026-04-26T13:50:29.851Z</time></trkpt><trkpt lat="39.93953492946818" lon="8.598643106587877"><ele>12.333333333333332</ele><time>2026-04-26T13:50:30.851Z</time></trkpt><trkpt lat="39.93938366436779" lon="8.598529437532985"><ele>12.0</ele><time>2026-04-26T13:50:31.851Z</time></trkpt><trkpt lat="39.939250539510624" lon="8.59840252953278"><ele>12.0</ele><time>2026-04-26T13:50:32.851Z</time></trkpt><trkpt lat="39.93911457100469" lon="8.598283372307609"><ele>12.0</ele><time>2026-04-26T13:50:33.851Z</time></trkpt><trkpt lat="39.93897458660176" lon="8.59816389093614"><ele>12.0</ele><time>2026-04-26T13:50:34.851Z</time></trkpt><trkpt lat="39.93883872723958" lon="8.59804426476416"><ele>12.0</ele><time>2026-04-26T13:50:35.851Z</time></trkpt><trkpt lat="39.93870601216677" lon="8.59793187656152"><ele>12.0</ele><time>2026-04-26T13:50:36.851Z</time></trkpt><trkpt lat="39.9385835731673" lon="8.597823591931304"><ele>12.0</ele><time>2026-04-26T13:50:37.851Z</time></trkpt><trkpt lat="39.93848030938629" lon="8.597712384837198"><ele>12.0</ele><time>2026-04-26T13:50:38.851Z</time></trkpt><trkpt lat="39.93837976546379" lon="8.59761433968589"><ele>12.0</ele><time>2026-04-26T13:50:39.851Z</time></trkpt><trkpt lat="39.93828039545655" lon="8.597513982724413"><ele>12.0</ele><time>2026-04-26T13:50:40.851Z</time></trkpt><trkpt lat="39.9381784089826" lon="8.597420200638412"><ele>12.0</ele><time>2026-04-26T13:50:41.851Z</time></trkpt><trkpt lat="39.93808151625702" lon="8.59733105858407"><ele>12.0</ele><time>2026-04-26T13:50:42.851Z</time></trkpt><trkpt lat="39.937993384152826" lon="8.597257118109344"><ele>12.0</ele><time>2026-04-26T13:50:43.851Z</time></trkpt><trkpt lat="39.93792492235749" lon="8.597196912763533"><ele>12.0</ele><time>2026-04-26T13:50:44.851Z</time></trkpt><trkpt lat="39.93788260922923" lon="8.597131079034154"><ele>12.0</ele><time>2026-04-26T13:50:45.851Z</time></trkpt><trkpt lat="39.937864009577964" lon="8.597052216006931"><ele>12.0</ele><time>2026-04-26T13:50:46.851Z</time></trkpt><trkpt lat="39.9378325833708" lon="8.596948069490628"><ele>12.0</ele><time>2026-04-26T13:50:47.851Z</time></trkpt><trkpt lat="39.937777998559966" lon="8.596861785216051"><ele>12.0</ele><time>2026-04-26T13:50:48.851Z</time></trkpt><trkpt lat="39.937704127093355" lon="8.596801250249001"><ele>12.0</ele><time>2026-04-26T13:50:49.851Z</time></trkpt><trkpt lat="39.93763113741451" lon="8.596764316198922"><ele>12.0</ele><time>2026-04-26T13:50:50.851Z</time></trkpt><trkpt lat="39.937554162220415" lon="8.596758882082836"><ele>12.0</ele><time>2026-04-26T13:50:51.851Z</time></trkpt><trkpt lat="39.93747759724462" lon="8.596773155551551"><ele>12.0</ele><time>2026-04-26T13:50:52.851Z</time></trkpt><trkpt lat="39.937397935879666" lon="8.596734582972779"><ele>12.0</ele><time>2026-04-26T13:50:53.851Z</time></trkpt><trkpt lat="39.93730891107547" lon="8.596671249276355"><ele>12.0</ele><time>2026-04-26T13:50:54.851Z</time></trkpt><trkpt lat="39.93720194082467" lon="8.596613218156065"><ele>12.25</ele><time>2026-04-26T13:50:55.85Z</time></trkpt><trkpt lat="39.93710391712269" lon="8.596521591128047"><ele>12.5</ele><time>2026-04-26T13:50:56.849Z</time></trkpt><trkpt lat="39.93700147495601" lon="8.596419523151445"><ele>12.75</ele><time>2026-04-26T13:50:57.849Z</time></trkpt><trkpt lat="39.93689192335333" lon="8.596317773885731"><ele>13.0</ele><time>2026-04-26T13:50:58.849Z</time></trkpt><trkpt lat="39.936778997273954" lon="8.596219400275118"><ele>12.5</ele><time>2026-04-26T13:50:59.85Z</time></trkpt><trkpt lat="39.936669256834044" lon="8.596125592980226"><ele>12.0</ele><time>2026-04-26T13:51:00.85Z</time></trkpt><trkpt lat="39.93655600911807" lon="8.596028808751276"><ele>11.5</ele><time>2026-04-26T13:51:01.849Z</time></trkpt><trkpt lat="39.936437756548514" lon="8.595927877222753"><ele>11.0</ele><time>2026-04-26T13:51:02.849Z</time></trkpt><trkpt lat="39.93631624209953" lon="8.595822776544425"><ele>11.0</ele><time>2026-04-26T13:51:03.849Z</time></trkpt><trkpt lat="39.9361885564612" lon="8.595714596461113"><ele>11.0</ele><time>2026-04-26T13:51:04.849Z</time></trkpt><trkpt lat="39.93606229870673" lon="8.595599428097586"><ele>11.0</ele><time>2026-04-26T13:51:05.849Z</time></trkpt><trkpt lat="39.93592927273658" lon="8.595485139263525"><ele>11.333333333333332</ele><time>2026-04-26T13:51:06.849Z</time></trkpt><trkpt lat="39.935799533267776" lon="8.595374282009164"><ele>11.666666666666666</ele><time>2026-04-26T13:51:07.849Z</time></trkpt><trkpt lat="39.935676383936894" lon="8.595265529000118"><ele>12.0</ele><time>2026-04-26T13:51:08.85Z</time></trkpt><trkpt lat="39.93555005686206" lon="8.595158289395622"><ele>12.0</ele><time>2026-04-26T13:51:09.85Z</time></trkpt><trkpt lat="39.93542375478028" lon="8.595050966112556"><ele>12.0</ele><time>2026-04-26T13:51:10.85Z</time></trkpt><trkpt lat="39.9352999641029" lon="8.594942412982055"><ele>12.0</ele><time>2026-04-26T13:51:11.85Z</time></trkpt><trkpt lat="39.93517277137936" lon="8.594833918738637"><ele>12.333333333333332</ele><time>2026-04-26T13:51:12.85Z</time></trkpt><trkpt lat="39.93504332843852" lon="8.594724964308478"><ele>12.666666666666666</ele><time>2026-04-26T13:51:13.85Z</time></trkpt><trkpt lat="39.934917420169946" lon="8.594615011976687"><ele>13.0</ele><time>2026-04-26T13:51:14.85Z</time></trkpt><trkpt lat="39.93479099616803" lon="8.59450745608051"><ele>12.75</ele><time>2026-04-26T13:51:15.85Z</time></trkpt><trkpt lat="39.93466466662708" lon="8.594404332404686"><ele>12.5</ele><time>2026-04-26T13:51:16.85Z</time></trkpt><trkpt lat="39.93453921502944" lon="8.594299871159624"><ele>12.25</ele><time>2026-04-26T13:51:17.85Z</time></trkpt><trkpt lat="39.93441638126779" lon="8.594196577626802"><ele>12.0</ele><time>2026-04-26T13:51:18.85Z</time></trkpt><trkpt lat="39.9342925496347" lon="8.594092787613775"><ele>12.0</ele><time>2026-04-26T13:51:19.85Z</time></trkpt><trkpt lat="39.93417500832669" lon="8.593981761983565"><ele>12.0</ele><time>2026-04-26T13:51:20.85Z</time></trkpt><trkpt lat="39.93405831733395" lon="8.593868043720635"><ele>12.0</ele><time>2026-04-26T13:51:21.85Z</time></trkpt><trkpt lat="39.93394473288944" lon="8.593744372029946"><ele>12.0</ele><time>2026-04-26T13:51:22.85Z</time></trkpt><trkpt lat="39.933830819501416" lon="8.593622603314973"><ele>11.5</ele><time>2026-04-26T13:51:23.85Z</time></trkpt><trkpt lat="39.93372084429021" lon="8.593497672520817"><ele>11.0</ele><time>2026-04-26T13:51:24.85Z</time></trkpt><trkpt lat="39.93361388229259" lon="8.59336710778356"><ele>10.5</ele><time>2026-04-26T13:51:25.85Z</time></trkpt><trkpt lat="39.933515414967445" lon="8.593238990823917"><ele>10.0</ele><time>2026-04-26T13:51:26.85Z</time></trkpt><trkpt lat="39.93343262195881" lon="8.593124655175318"><ele>10.5</ele><time>2026-04-26T13:51:27.85Z</time></trkpt><trkpt lat="39.93336465972696" lon="8.59301514399128"><ele>11.0</ele><time>2026-04-26T13:51:28.85Z</time></trkpt><trkpt lat="39.933298159044114" lon="8.592896314028458"><ele>11.5</ele><time>2026-04-26T13:51:29.85Z</time></trkpt><trkpt lat="39.93323985659047" lon="8.592770968331592"><ele>12.0</ele><time>2026-04-26T13:51:30.85Z</time></trkpt><trkpt lat="39.933190582320535" lon="8.59262707638233"><ele>12.0</ele><time>2026-04-26T13:51:31.85Z</time></trkpt><trkpt lat="39.93313827934263" lon="8.592483304080202"><ele>12.0</ele><time>2026-04-26T13:51:32.85Z</time></trkpt><trkpt lat="39.933076431632315" lon="8.592351008814425"><ele>12.0</ele><time>2026-04-26T13:51:33.85Z</time></trkpt><trkpt lat="39.93301599298569" lon="8.59223449615324"><ele>12.0</ele><time>2026-04-26T13:51:34.85Z</time></trkpt><trkpt lat="39.93297352628442" lon="8.59212703961003"><ele>12.0</ele><time>2026-04-26T13:51:35.85Z</time></trkpt><trkpt lat="39.932936378676395" lon="8.592030404067348"><ele>12.0</ele><time>2026-04-26T13:51:36.85Z</time></trkpt><trkpt lat="39.93288695692491" lon="8.591902962029504"><ele>12.0</ele><time>2026-04-26T13:51:38.85Z</time></trkpt><trkpt lat="39.93296053509937" lon="8.591965517103484"><ele>12.0</ele><time>2026-04-26T13:51:45.85Z</time></trkpt><trkpt lat="39.93298886624122" lon="8.592080336468774"><ele>12.0</ele><time>2026-04-26T13:51:47.85Z</time></trkpt><trkpt lat="39.93302542697752" lon="8.592154511022297"><ele>12.0</ele><time>2026-04-26T13:51:50.85Z</time></trkpt><trkpt lat="39.93304764658063" lon="8.592256429518624"><ele>12.0</ele><time>2026-04-26T13:54:57.886Z</time></trkpt><trkpt lat="39.93309748627204" lon="8.592336716652307"><ele>12.0</ele><time>2026-04-26T13:54:59.886Z</time></trkpt><trkpt lat="39.933024472077065" lon="8.592261347473988"><ele>12.0</ele><time>2026-04-26T13:55:08.885Z</time></trkpt><trkpt lat="39.932979319095345" lon="8.592136547563394"><ele>12.0</ele><time>2026-04-26T13:55:10.886Z</time></trkpt><trkpt lat="39.932939248837855" lon="8.592008991636963"><ele>12.0</ele><time>2026-04-26T13:55:12.885Z</time></trkpt><trkpt lat="39.93288541530115" lon="8.591883861690524"><ele>12.0</ele><time>2026-04-26T13:55:14.886Z</time></trkpt><trkpt lat="39.93285108275528" lon="8.591810387310906"><ele>12.0</ele><time>2026-04-26T13:55:15.886Z</time></trkpt><trkpt lat="39.93281523447228" lon="8.591728810453288"><ele>12.0</ele><time>2026-04-26T13:55:16.886Z</time></trkpt><trkpt lat="39.93277815139713" lon="8.591650779458977"><ele>12.0</ele><time>2026-04-26T13:55:17.885Z</time></trkpt><trkpt lat="39.9327425174081" lon="8.591573321216103"><ele>12.0</ele><time>2026-04-26T13:55:18.885Z</time></trkpt><trkpt lat="39.932698165050695" lon="8.59148832905942"><ele>12.0</ele><time>2026-04-26T13:55:19.886Z</time></trkpt><trkpt lat="39.932660599195266" lon="8.591386846055125"><ele>12.0</ele><time>2026-04-26T13:55:20.886Z</time></trkpt><trkpt lat="39.932621747392155" lon="8.591284187098926"><ele>12.0</ele><time>2026-04-26T13:55:21.886Z</time></trkpt><trkpt lat="39.932575151849626" lon="8.591178024644762"><ele>12.0</ele><time>2026-04-26T13:55:22.886Z</time></trkpt><trkpt lat="39.93252604908009" lon="8.591064802149573"><ele>12.0</ele><time>2026-04-26T13:55:23.886Z</time></trkpt><trkpt lat="39.932479066627614" lon="8.590949089919478"><ele>12.0</ele><time>2026-04-26T13:55:24.886Z</time></trkpt><trkpt lat="39.93242995110831" lon="8.590837552303803"><ele>12.0</ele><time>2026-04-26T13:55:25.886Z</time></trkpt><trkpt lat="39.9323824092543" lon="8.5907247039919"><ele>11.6</ele><time>2026-04-26T13:55:26.886Z</time></trkpt><trkpt lat="39.93233091662344" lon="8.590606745059969"><ele>11.2</ele><time>2026-04-26T13:55:27.886Z</time></trkpt><trkpt lat="39.93227674760384" lon="8.590481770343068"><ele>10.8</ele><time>2026-04-26T13:55:28.886Z</time></trkpt><trkpt lat="39.932223603177945" lon="8.590353117305"><ele>10.4</ele><time>2026-04-26T13:55:29.886Z</time></trkpt><trkpt lat="39.93216778834868" lon="8.590219210215762"><ele>10.0</ele><time>2026-04-26T13:55:30.886Z</time></trkpt><trkpt lat="39.93210904635565" lon="8.590088144799982"><ele>9.75</ele><time>2026-04-26T13:55:31.886Z</time></trkpt><trkpt lat="39.93205337218534" lon="8.5899518350105"><ele>9.5</ele><time>2026-04-26T13:55:32.886Z</time></trkpt><trkpt lat="39.93199652486234" lon="8.589821777943945"><ele>9.25</ele><time>2026-04-26T13:55:33.886Z</time></trkpt><trkpt lat="39.931936261065744" lon="8.589691444515177"><ele>9.0</ele><time>2026-04-26T13:55:34.886Z</time></trkpt><trkpt lat="39.93188604381001" lon="8.589564148598818"><ele>9.25</ele><time>2026-04-26T13:55:35.886Z</time></trkpt><trkpt lat="39.931829212517115" lon="8.58943360949095"><ele>9.5</ele><time>2026-04-26T13:55:36.886Z</time></trkpt><trkpt lat="39.931772004951725" lon="8.589296787807953"><ele>9.75</ele><time>2026-04-26T13:55:37.886Z</time></trkpt><trkpt lat="39.93171016106374" lon="8.589161355059792"><ele>10.0</ele><time>2026-04-26T13:55:38.886Z</time></trkpt><trkpt lat="39.93164639850049" lon="8.589016317677752"><ele>10.0</ele><time>2026-04-26T13:55:39.886Z</time></trkpt><trkpt lat="39.931581794036745" lon="8.588864836681157"><ele>10.0</ele><time>2026-04-26T13:55:40.886Z</time></trkpt><trkpt lat="39.931516972463044" lon="8.588715234515114"><ele>10.0</ele><time>2026-04-26T13:55:41.886Z</time></trkpt><trkpt lat="39.93145224075004" lon="8.588563141476277"><ele>10.0</ele><time>2026-04-26T13:55:42.886Z</time></trkpt><trkpt lat="39.931387393030256" lon="8.588413963576123"><ele>9.75</ele><time>2026-04-26T13:55:43.886Z</time></trkpt><trkpt lat="39.931321827339154" lon="8.58826315772877"><ele>9.5</ele><time>2026-04-26T13:55:44.886Z</time></trkpt><trkpt lat="39.93125692155127" lon="8.588116897055844"><ele>9.25</ele><time>2026-04-26T13:55:45.886Z</time></trkpt><trkpt lat="39.93119204634363" lon="8.587964640437942"><ele>9.0</ele><time>2026-04-26T13:55:46.886Z</time></trkpt><trkpt lat="39.93112517908939" lon="8.587813439616358"><ele>9.0</ele><time>2026-04-26T13:55:47.886Z</time></trkpt><trkpt lat="39.931060258056334" lon="8.587661906045817"><ele>9.0</ele><time>2026-04-26T13:55:48.886Z</time></trkpt><trkpt lat="39.93100624636467" lon="8.587507133551549"><ele>9.0</ele><time>2026-04-26T13:55:49.886Z</time></trkpt><trkpt lat="39.93093968161459" lon="8.587354341773628"><ele>9.0</ele><time>2026-04-26T13:55:50.886Z</time></trkpt><trkpt lat="39.930877196159976" lon="8.587202868421771"><ele>8.25</ele><time>2026-04-26T13:55:51.886Z</time></trkpt><trkpt lat="39.93081326247717" lon="8.587056326639932"><ele>7.5</ele><time>2026-04-26T13:55:52.886Z</time></trkpt><trkpt lat="39.930748103016256" lon="8.586904440257848"><ele>6.75</ele><time>2026-04-26T13:55:53.886Z</time></trkpt><trkpt lat="39.93068439404469" lon="8.586749920237617"><ele>6.0</ele><time>2026-04-26T13:55:54.886Z</time></trkpt><trkpt lat="39.93062692005864" lon="8.586599266982601"><ele>6.0</ele><time>2026-04-26T13:55:55.886Z</time></trkpt><trkpt lat="39.93056513521033" lon="8.586445369178834"><ele>6.0</ele><time>2026-04-26T13:55:56.886Z</time></trkpt><trkpt lat="39.93050248850965" lon="8.58628303558634"><ele>6.0</ele><time>2026-04-26T13:55:57.886Z</time></trkpt><trkpt lat="39.930430080184124" lon="8.586116056139323"><ele>6.0</ele><time>2026-04-26T13:55:58.886Z</time></trkpt><trkpt lat="39.93036553206951" lon="8.585952767982736"><ele>6.5</ele><time>2026-04-26T13:55:59.886Z</time></trkpt><trkpt lat="39.930300113771835" lon="8.58578538215585"><ele>7.0</ele><time>2026-04-26T13:56:00.886Z</time></trkpt><trkpt lat="39.93022677457969" lon="8.585621637608545"><ele>7.5</ele><time>2026-04-26T13:56:01.886Z</time></trkpt><trkpt lat="39.93015084275383" lon="8.585462288207566"><ele>8.0</ele><time>2026-04-26T13:56:02.886Z</time></trkpt><trkpt lat="39.93007503036751" lon="8.58529882764927"><ele>8.5</ele><time>2026-04-26T13:56:03.886Z</time></trkpt><trkpt lat="39.930002827194585" lon="8.585133276967952"><ele>9.0</ele><time>2026-04-26T13:56:04.886Z</time></trkpt><trkpt lat="39.92992803950818" lon="8.584969486128974"><ele>9.5</ele><time>2026-04-26T13:56:05.886Z</time></trkpt><trkpt lat="39.92985353437959" lon="8.58480089123894"><ele>10.0</ele><time>2026-04-26T13:56:06.886Z</time></trkpt><trkpt lat="39.929779267497295" lon="8.584631486934146"><ele>9.75</ele><time>2026-04-26T13:56:07.886Z</time></trkpt><trkpt lat="39.92970963130729" lon="8.584463823697924"><ele>9.5</ele><time>2026-04-26T13:56:08.886Z</time></trkpt><trkpt lat="39.929639687308054" lon="8.584297838275042"><ele>9.25</ele><time>2026-04-26T13:56:09.886Z</time></trkpt><trkpt lat="39.92956661856954" lon="8.584138014987461"><ele>9.0</ele><time>2026-04-26T13:56:10.886Z</time></trkpt><trkpt lat="39.929495839610446" lon="8.583980415150448"><ele>9.0</ele><time>2026-04-26T13:56:11.886Z</time></trkpt><trkpt lat="39.92942270241736" lon="8.583824273133086"><ele>9.0</ele><time>2026-04-26T13:56:12.886Z</time></trkpt><trkpt lat="39.92934896354144" lon="8.583668433128329"><ele>9.0</ele><time>2026-04-26T13:56:13.886Z</time></trkpt><trkpt lat="39.92927858053839" lon="8.583504545356611"><ele>9.0</ele><time>2026-04-26T13:56:14.886Z</time></trkpt><trkpt lat="39.92920765682495" lon="8.583344198310002"><ele>8.75</ele><time>2026-04-26T13:56:15.886Z</time></trkpt><trkpt lat="39.9291407431761" lon="8.583184324175111"><ele>8.5</ele><time>2026-04-26T13:56:16.886Z</time></trkpt><trkpt lat="39.92907174889595" lon="8.583024116227248"><ele>8.25</ele><time>2026-04-26T13:56:17.886Z</time></trkpt><trkpt lat="39.92900851295526" lon="8.582860242010403"><ele>8.0</ele><time>2026-04-26T13:56:18.886Z</time></trkpt><trkpt lat="39.928942437273854" lon="8.582697217625684"><ele>8.0</ele><time>2026-04-26T13:56:19.886Z</time></trkpt><trkpt lat="39.92887550598375" lon="8.582531001633084"><ele>8.0</ele><time>2026-04-26T13:56:20.886Z</time></trkpt><trkpt lat="39.9288087327418" lon="8.582368019254158"><ele>8.0</ele><time>2026-04-26T13:56:21.886Z</time></trkpt><trkpt lat="39.92874126659433" lon="8.582207317357987"><ele>8.0</ele><time>2026-04-26T13:56:22.886Z</time></trkpt><trkpt lat="39.92867621513659" lon="8.582048257990467"><ele>7.75</ele><time>2026-04-26T13:56:23.886Z</time></trkpt><trkpt lat="39.9286098915066" lon="8.581890383271205"><ele>7.5</ele><time>2026-04-26T13:56:24.886Z</time></trkpt><trkpt lat="39.92854099508208" lon="8.581731161351758"><ele>7.25</ele><time>2026-04-26T13:56:25.886Z</time></trkpt><trkpt lat="39.92847136536753" lon="8.58157502694205"><ele>7.0</ele><time>2026-04-26T13:56:26.886Z</time></trkpt><trkpt lat="39.92840163209505" lon="8.581417972055684"><ele>6.75</ele><time>2026-04-26T13:56:27.886Z</time></trkpt><trkpt lat="39.92832983712068" lon="8.581260119305746"><ele>6.5</ele><time>2026-04-26T13:56:28.886Z</time></trkpt><trkpt lat="39.928268051284114" lon="8.581103979763846"><ele>6.25</ele><time>2026-04-26T13:56:29.886Z</time></trkpt><trkpt lat="39.92820916580918" lon="8.580948166445877"><ele>6.0</ele><time>2026-04-26T13:56:30.886Z</time></trkpt><trkpt lat="39.92814898845473" lon="8.580794936033946"><ele>6.0</ele><time>2026-04-26T13:56:31.886Z</time></trkpt><trkpt lat="39.92808273183858" lon="8.580643398700596"><ele>6.0</ele><time>2026-04-26T13:56:32.886Z</time></trkpt><trkpt lat="39.928012209020075" lon="8.580489859437158"><ele>6.0</ele><time>2026-04-26T13:56:33.886Z</time></trkpt><trkpt lat="39.92795481718268" lon="8.580333069294147"><ele>6.0</ele><time>2026-04-26T13:56:34.887Z</time></trkpt><trkpt lat="39.92789425287882" lon="8.580178497329731"><ele>6.25</ele><time>2026-04-26T13:56:35.887Z</time></trkpt><trkpt lat="39.927824204581626" lon="8.580044262829553"><ele>6.5</ele><time>2026-04-26T13:56:36.887Z</time></trkpt><trkpt lat="39.927735490395925" lon="8.57992486654094"><ele>6.75</ele><time>2026-04-26T13:56:37.887Z</time></trkpt><trkpt lat="39.92765531277245" lon="8.579795546186055"><ele>7.0</ele><time>2026-04-26T13:56:38.887Z</time></trkpt><trkpt lat="39.927585575604134" lon="8.579667963645399"><ele>7.0</ele><time>2026-04-26T13:56:39.887Z</time></trkpt><trkpt lat="39.92752568508057" lon="8.57955989739345"><ele>6.999999999999999</ele><time>2026-04-26T13:56:40.887Z</time></trkpt><trkpt lat="39.92746046427365" lon="8.579471974094634"><ele>6.999999999999999</ele><time>2026-04-26T13:56:41.887Z</time></trkpt><trkpt lat="39.927394125395615" lon="8.579386353760636"><ele>7.0</ele><time>2026-04-26T13:56:42.887Z</time></trkpt><trkpt lat="39.92733081408887" lon="8.579308581861607"><ele>7.0</ele><time>2026-04-26T13:56:43.887Z</time></trkpt><trkpt lat="39.92727352097724" lon="8.57922758154859"><ele>7.0</ele><time>2026-04-26T13:56:44.887Z</time></trkpt><trkpt lat="39.92723469634703" lon="8.579137468772785"><ele>7.0</ele><time>2026-04-26T13:56:45.887Z</time></trkpt><trkpt lat="39.92721546541319" lon="8.579045351878557"><ele>7.0</ele><time>2026-04-26T13:56:46.887Z</time></trkpt><trkpt lat="39.92720481446943" lon="8.578950756368748"><ele>7.0</ele><time>2026-04-26T13:56:47.887Z</time></trkpt><trkpt lat="39.92720255348077" lon="8.578860875117877"><ele>7.0</ele><time>2026-04-26T13:56:48.887Z</time></trkpt><trkpt lat="39.927189091392876" lon="8.578778547447873"><ele>7.0</ele><time>2026-04-26T13:56:49.887Z</time></trkpt><trkpt lat="39.92717962295382" lon="8.578691236453807"><ele>7.0</ele><time>2026-04-26T13:56:50.887Z</time></trkpt><trkpt lat="39.9271525733787" lon="8.578612548172531"><ele>7.500000000000001</ele><time>2026-04-26T13:56:51.887Z</time></trkpt><trkpt lat="39.92708705593505" lon="8.578543060445972"><ele>8.0</ele><time>2026-04-26T13:56:52.887Z</time></trkpt><trkpt lat="39.92702791603462" lon="8.578477433756518"><ele>8.5</ele><time>2026-04-26T13:56:53.887Z</time></trkpt><trkpt lat="39.92697498679216" lon="8.578399182899"><ele>9.0</ele><time>2026-04-26T13:56:54.887Z</time></trkpt><trkpt lat="39.92692116772475" lon="8.578312831714976"><ele>9.5</ele><time>2026-04-26T13:56:55.887Z</time></trkpt><trkpt lat="39.92688044530154" lon="8.578203227118676"><ele>10.0</ele><time>2026-04-26T13:56:56.887Z</time></trkpt><trkpt lat="39.92683896024955" lon="8.578081346956168"><ele>10.0</ele><time>2026-04-26T13:56:57.887Z</time></trkpt><trkpt lat="39.926788256325565" lon="8.577949109664019"><ele>10.0</ele><time>2026-04-26T13:56:58.887Z</time></trkpt><trkpt lat="39.92680951270034" lon="8.57780683111518"><ele>10.0</ele><time>2026-04-26T13:56:59.887Z</time></trkpt><trkpt lat="39.926770816794594" lon="8.577666582474688"><ele>10.0</ele><time>2026-04-26T13:57:00.887Z</time></trkpt><trkpt lat="39.92672538106919" lon="8.577544654753234"><ele>10.0</ele><time>2026-04-26T13:57:01.887Z</time></trkpt><trkpt lat="39.92666853382184" lon="8.577410954869913"><ele>9.75</ele><time>2026-04-26T13:57:02.887Z</time></trkpt><trkpt lat="39.92661067046022" lon="8.57730026204899"><ele>9.5</ele><time>2026-04-26T13:57:03.887Z</time></trkpt><trkpt lat="39.92655517119319" lon="8.577169609883928"><ele>9.25</ele><time>2026-04-26T13:57:04.887Z</time></trkpt><trkpt lat="39.926498687987426" lon="8.577029148138363"><ele>9.0</ele><time>2026-04-26T13:57:05.887Z</time></trkpt><trkpt lat="39.92642543209278" lon="8.576869339506512"><ele>9.0</ele><time>2026-04-26T13:57:06.887Z</time></trkpt><trkpt lat="39.92633754553598" lon="8.576678728221335"><ele>9.0</ele><time>2026-04-26T13:57:07.887Z</time></trkpt><trkpt lat="39.92624394853729" lon="8.576473370730495"><ele>9.0</ele><time>2026-04-26T13:57:08.887Z</time></trkpt><trkpt lat="39.92615117514565" lon="8.576265218813017"><ele>9.666666666666666</ele><time>2026-04-26T13:57:09.887Z</time></trkpt><trkpt lat="39.926038558118044" lon="8.576068368158603"><ele>10.333333333333332</ele><time>2026-04-26T13:57:10.887Z</time></trkpt><trkpt lat="39.92591716002897" lon="8.57592204745947"><ele>11.0</ele><time>2026-04-26T13:57:11.887Z</time></trkpt><trkpt lat="39.92602314773659" lon="8.576064591629263"><ele>11.0</ele><time>2026-04-26T13:57:12.887Z</time></trkpt><trkpt lat="39.9259445349103" lon="8.575935965745293"><ele>11.0</ele><time>2026-04-26T13:57:13.886Z</time></trkpt><trkpt lat="39.9258546232342" lon="8.575830606789946"><ele>11.0</ele><time>2026-04-26T13:57:14.885Z</time></trkpt><trkpt lat="39.925759638205335" lon="8.575724508808499"><ele>11.0</ele><time>2026-04-26T13:57:15.885Z</time></trkpt><trkpt lat="39.92565497602708" lon="8.57561877254927"><ele>10.25</ele><time>2026-04-26T13:57:16.885Z</time></trkpt><trkpt lat="39.92554251495462" lon="8.575519069620734"><ele>9.5</ele><time>2026-04-26T13:57:17.885Z</time></trkpt><trkpt lat="39.92542969705768" lon="8.57541134014301"><ele>8.75</ele><time>2026-04-26T13:57:18.885Z</time></trkpt><trkpt lat="39.92531512247378" lon="8.575300327262369"><ele>8.0</ele><time>2026-04-26T13:57:19.886Z</time></trkpt><trkpt lat="39.92520046435791" lon="8.575191588731302"><ele>8.0</ele><time>2026-04-26T13:57:20.885Z</time></trkpt><trkpt lat="39.92508168735654" lon="8.575085263998892"><ele>8.0</ele><time>2026-04-26T13:57:21.885Z</time></trkpt><trkpt lat="39.92496401959676" lon="8.574979616168475"><ele>8.0</ele><time>2026-04-26T13:57:22.885Z</time></trkpt><trkpt lat="39.9248456093288" lon="8.574866927882102"><ele>8.0</ele><time>2026-04-26T13:57:23.885Z</time></trkpt><trkpt lat="39.92472674096198" lon="8.574758420545118"><ele>7.75</ele><time>2026-04-26T13:57:24.885Z</time></trkpt><trkpt lat="39.92460570683178" lon="8.574649679743233"><ele>7.5</ele><time>2026-04-26T13:57:25.885Z</time></trkpt><trkpt lat="39.92448334866457" lon="8.574541270039983"><ele>7.25</ele><time>2026-04-26T13:57:26.885Z</time></trkpt><trkpt lat="39.924361056053684" lon="8.57442676878078"><ele>7.0</ele><time>2026-04-26T13:57:27.885Z</time></trkpt><trkpt lat="39.924240119224905" lon="8.574308841096553"><ele>7.0</ele><time>2026-04-26T13:57:28.885Z</time></trkpt><trkpt lat="39.924123406244476" lon="8.574203807813456"><ele>7.0</ele><time>2026-04-26T13:57:29.885Z</time></trkpt><trkpt lat="39.924005100816494" lon="8.574088641268288"><ele>7.0</ele><time>2026-04-26T13:57:30.885Z</time></trkpt><trkpt lat="39.92388755650349" lon="8.57397325929986"><ele>7.0</ele><time>2026-04-26T13:57:31.885Z</time></trkpt><trkpt lat="39.92376716814722" lon="8.573854197336704"><ele>7.0</ele><time>2026-04-26T13:57:32.885Z</time></trkpt><trkpt lat="39.923641871945016" lon="8.573736189192264"><ele>7.0</ele><time>2026-04-26T13:57:33.885Z</time></trkpt><trkpt lat="39.92351716844224" lon="8.57361165606877"><ele>7.0</ele><time>2026-04-26T13:57:34.885Z</time></trkpt><trkpt lat="39.923395627597394" lon="8.573483427597365"><ele>6.75</ele><time>2026-04-26T13:57:35.885Z</time></trkpt><trkpt lat="39.92328259346021" lon="8.57336412064869"><ele>6.5</ele><time>2026-04-26T13:57:36.885Z</time></trkpt><trkpt lat="39.9231794464708" lon="8.573232419517772"><ele>6.25</ele><time>2026-04-26T13:57:37.885Z</time></trkpt><trkpt lat="39.923088675204454" lon="8.573086319530653"><ele>6.0</ele><time>2026-04-26T13:57:38.885Z</time></trkpt><trkpt lat="39.9230038475293" lon="8.57293404480284"><ele>6.25</ele><time>2026-04-26T13:57:39.885Z</time></trkpt><trkpt lat="39.9229205349237" lon="8.572777398122149"><ele>6.5</ele><time>2026-04-26T13:57:40.885Z</time></trkpt><trkpt lat="39.92284784514047" lon="8.57260714765329"><ele>6.75</ele><time>2026-04-26T13:57:41.885Z</time></trkpt><trkpt lat="39.92277186867137" lon="8.572437604365412"><ele>7.0</ele><time>2026-04-26T13:57:42.885Z</time></trkpt><trkpt lat="39.9226978309065" lon="8.572266655795278"><ele>7.0</ele><time>2026-04-26T13:57:43.885Z</time></trkpt><trkpt lat="39.92262297537569" lon="8.57209473979451"><ele>7.0</ele><time>2026-04-26T13:57:44.885Z</time></trkpt><trkpt lat="39.92254735951878" lon="8.571924440788816"><ele>7.0</ele><time>2026-04-26T13:57:45.885Z</time></trkpt><trkpt lat="39.9224709350595" lon="8.571752707356437"><ele>6.666666666666667</ele><time>2026-04-26T13:57:46.885Z</time></trkpt><trkpt lat="39.92239459929497" lon="8.571583389192378"><ele>6.333333333333334</ele><time>2026-04-26T13:57:47.885Z</time></trkpt><trkpt lat="39.92232903759252" lon="8.571399303106848"><ele>6.0</ele><time>2026-04-26T13:57:48.885Z</time></trkpt><trkpt lat="39.922275523248764" lon="8.571213214234993"><ele>6.5</ele><time>2026-04-26T13:57:49.885Z</time></trkpt><trkpt lat="39.922232977139224" lon="8.57102781227674"><ele>7.0</ele><time>2026-04-26T13:57:50.885Z</time></trkpt><trkpt lat="39.92220277586084" lon="8.57084456186177"><ele>7.5</ele><time>2026-04-26T13:57:51.885Z</time></trkpt><trkpt lat="39.922174793285855" lon="8.570645588205794"><ele>8.0</ele><time>2026-04-26T13:57:52.885Z</time></trkpt><trkpt lat="39.92215423023058" lon="8.570447940839673"><ele>8.333333333333332</ele><time>2026-04-26T13:57:53.885Z</time></trkpt><trkpt lat="39.92213982694777" lon="8.570253130232942"><ele>8.666666666666666</ele><time>2026-04-26T13:57:54.885Z</time></trkpt><trkpt lat="39.92213075027797" lon="8.570057594671491"><ele>9.0</ele><time>2026-04-26T13:57:55.885Z</time></trkpt><trkpt lat="39.92212155474087" lon="8.569863340051839"><ele>9.0</ele><time>2026-04-26T13:57:56.885Z</time></trkpt><trkpt lat="39.922112763351876" lon="8.569668134020757"><ele>9.0</ele><time>2026-04-26T13:57:57.885Z</time></trkpt><trkpt lat="39.92210936287897" lon="8.569473912770082"><ele>9.0</ele><time>2026-04-26T13:57:58.885Z</time></trkpt><trkpt lat="39.9221016511443" lon="8.569279912653675"><ele>9.0</ele><time>2026-04-26T13:57:59.885Z</time></trkpt><trkpt lat="39.92208996467117" lon="8.569081875091223"><ele>9.0</ele><time>2026-04-26T13:58:00.885Z</time></trkpt><trkpt lat="39.922083492334124" lon="8.568884293255373"><ele>9.0</ele><time>2026-04-26T13:58:01.885Z</time></trkpt><trkpt lat="39.922075830073716" lon="8.568696646325868"><ele>9.0</ele><time>2026-04-26T13:58:02.885Z</time></trkpt><trkpt lat="39.92206291504266" lon="8.56851709600906"><ele>9.0</ele><time>2026-04-26T13:58:03.885Z</time></trkpt><trkpt lat="39.92203218587234" lon="8.56832898047765"><ele>9.333333333333334</ele><time>2026-04-26T13:58:04.885Z</time></trkpt><trkpt lat="39.921987569773655" lon="8.568141710639917"><ele>9.666666666666668</ele><time>2026-04-26T13:58:05.885Z</time></trkpt><trkpt lat="39.921933321178365" lon="8.567955772959449"><ele>10.0</ele><time>2026-04-26T13:58:06.885Z</time></trkpt><trkpt lat="39.92187422544246" lon="8.56777700172199"><ele>10.0</ele><time>2026-04-26T13:58:07.885Z</time></trkpt><trkpt lat="39.92181380161483" lon="8.567601258741975"><ele>10.0</ele><time>2026-04-26T13:58:08.885Z</time></trkpt><trkpt lat="39.92175292843889" lon="8.567429011718685"><ele>10.0</ele><time>2026-04-26T13:58:09.885Z</time></trkpt><trkpt lat="39.92168739134321" lon="8.567257662330036"><ele>10.0</ele><time>2026-04-26T13:58:10.885Z</time></trkpt><trkpt lat="39.92162111048152" lon="8.567083997731155"><ele>9.25</ele><time>2026-04-26T13:58:11.885Z</time></trkpt><trkpt lat="39.921555433008216" lon="8.566907945817313"><ele>8.5</ele><time>2026-04-26T13:58:12.885Z</time></trkpt><trkpt lat="39.92149003627173" lon="8.566737137097103"><ele>7.75</ele><time>2026-04-26T13:58:13.885Z</time></trkpt><trkpt lat="39.921434474686016" lon="8.566556706394442"><ele>7.0</ele><time>2026-04-26T13:58:14.885Z</time></trkpt><trkpt lat="39.92136840912952" lon="8.566378972070808"><ele>7.0</ele><time>2026-04-26T13:58:15.885Z</time></trkpt><trkpt lat="39.92130149420543" lon="8.566205326884502"><ele>7.0</ele><time>2026-04-26T13:58:16.885Z</time></trkpt><trkpt lat="39.92123486267538" lon="8.566031671953542"><ele>7.0</ele><time>2026-04-26T13:58:17.885Z</time></trkpt><trkpt lat="39.921172034674605" lon="8.565864325273797"><ele>7.0</ele><time>2026-04-26T13:58:18.885Z</time></trkpt><trkpt lat="39.92110979811425" lon="8.565698187827413"><ele>7.0</ele><time>2026-04-26T13:58:19.885Z</time></trkpt><trkpt lat="39.92105382194759" lon="8.565527823312088"><ele>7.0</ele><time>2026-04-26T13:58:20.885Z</time></trkpt><trkpt lat="39.92099485389687" lon="8.565358346269107"><ele>7.0</ele><time>2026-04-26T13:58:21.885Z</time></trkpt><trkpt lat="39.92094118699062" lon="8.565181476692192"><ele>7.0</ele><time>2026-04-26T13:58:22.885Z</time></trkpt><trkpt lat="39.9208879303737" lon="8.56500719150403"><ele>6.75</ele><time>2026-04-26T13:58:23.885Z</time></trkpt><trkpt lat="39.92083944717132" lon="8.564829221717003"><ele>6.5</ele><time>2026-04-26T13:58:24.885Z</time></trkpt><trkpt lat="39.92078886090431" lon="8.56464889648954"><ele>6.25</ele><time>2026-04-26T13:58:25.885Z</time></trkpt><trkpt lat="39.92073856674401" lon="8.564459817547592"><ele>6.0</ele><time>2026-04-26T13:58:26.886Z</time></trkpt><trkpt lat="39.92068673749792" lon="8.564276687160918"><ele>6.0</ele><time>2026-04-26T13:58:27.886Z</time></trkpt><trkpt lat="39.92062944169806" lon="8.564086635494913"><ele>6.0</ele><time>2026-04-26T13:58:28.886Z</time></trkpt><trkpt lat="39.92057661042253" lon="8.56389414383241"><ele>6.0</ele><time>2026-04-26T13:58:29.886Z</time></trkpt><trkpt lat="39.92052269536032" lon="8.563701722225236"><ele>5.333333333333333</ele><time>2026-04-26T13:58:30.886Z</time></trkpt><trkpt lat="39.92046853163526" lon="8.56351411579082"><ele>4.666666666666666</ele><time>2026-04-26T13:58:31.886Z</time></trkpt><trkpt lat="39.92041260856732" lon="8.563316669161381"><ele>4.0</ele><time>2026-04-26T13:58:32.886Z</time></trkpt><trkpt lat="39.92035895850869" lon="8.563126034785743"><ele>4.0</ele><time>2026-04-26T13:58:33.886Z</time></trkpt><trkpt lat="39.92030530308094" lon="8.562938808454174"><ele>4.0</ele><time>2026-04-26T13:58:34.886Z</time></trkpt><trkpt lat="39.920249110692254" lon="8.562748751339207"><ele>4.0</ele><time>2026-04-26T13:58:35.886Z</time></trkpt><trkpt lat="39.92019406436119" lon="8.562562249953794"><ele>4.0</ele><time>2026-04-26T13:58:36.886Z</time></trkpt><trkpt lat="39.920137395971516" lon="8.562371046994869"><ele>4.0</ele><time>2026-04-26T13:58:37.886Z</time></trkpt><trkpt lat="39.92008603363958" lon="8.5621844128254"><ele>4.0</ele><time>2026-04-26T13:58:38.886Z</time></trkpt><trkpt lat="39.920030830874325" lon="8.56199584457124"><ele>4.0</ele><time>2026-04-26T13:58:39.886Z</time></trkpt><trkpt lat="39.91997869882733" lon="8.561803569924386"><ele>4.0</ele><time>2026-04-26T13:58:40.886Z</time></trkpt><trkpt lat="39.919923927702" lon="8.561611170393956"><ele>4.0</ele><time>2026-04-26T13:58:41.886Z</time></trkpt><trkpt lat="39.91986916137193" lon="8.561415023599043"><ele>4.0</ele><time>2026-04-26T13:58:42.886Z</time></trkpt><trkpt lat="39.91981404236791" lon="8.56122383034084"><ele>4.0</ele><time>2026-04-26T13:58:43.886Z</time></trkpt><trkpt lat="39.919760367647605" lon="8.561034200099584"><ele>4.0</ele><time>2026-04-26T13:58:44.886Z</time></trkpt><trkpt lat="39.91970421441701" lon="8.560840168869271"><ele>4.0</ele><time>2026-04-26T13:58:45.886Z</time></trkpt><trkpt lat="39.91964953121793" lon="8.560646714207383"><ele>4.0</ele><time>2026-04-26T13:58:46.886Z</time></trkpt><trkpt lat="39.919592882753555" lon="8.560450989954063"><ele>4.0</ele><time>2026-04-26T13:58:47.886Z</time></trkpt><trkpt lat="39.919535153958705" lon="8.560261108539441"><ele>3.6666666666666665</ele><time>2026-04-26T13:58:48.886Z</time></trkpt><trkpt lat="39.919477529048386" lon="8.560062854903338"><ele>3.333333333333333</ele><time>2026-04-26T13:58:49.886Z</time></trkpt><trkpt lat="39.91941743279109" lon="8.559862902959717"><ele>3.0</ele><time>2026-04-26T13:58:50.886Z</time></trkpt><trkpt lat="39.91936079998383" lon="8.559662951818012"><ele>3.0</ele><time>2026-04-26T13:58:51.886Z</time></trkpt><trkpt lat="39.91930545871569" lon="8.55946332854309"><ele>3.0</ele><time>2026-04-26T13:58:52.886Z</time></trkpt><trkpt lat="39.919246439100455" lon="8.559265355396448"><ele>3.0</ele><time>2026-04-26T13:58:53.886Z</time></trkpt><trkpt lat="39.91918664802948" lon="8.559067086945861"><ele>3.0</ele><time>2026-04-26T13:58:54.886Z</time></trkpt><trkpt lat="39.91912869228024" lon="8.55886550425628"><ele>3.0</ele><time>2026-04-26T13:58:55.886Z</time></trkpt><trkpt lat="39.91907132177815" lon="8.558662665751108"><ele>3.0</ele><time>2026-04-26T13:58:56.886Z</time></trkpt><trkpt lat="39.91901473083423" lon="8.558461352248246"><ele>3.333333333333333</ele><time>2026-04-26T13:58:57.886Z</time></trkpt><trkpt lat="39.91895638490703" lon="8.558257646988064"><ele>3.6666666666666665</ele><time>2026-04-26T13:58:58.886Z</time></trkpt><trkpt lat="39.91889914363317" lon="8.558059853729983"><ele>4.0</ele><time>2026-04-26T13:58:59.886Z</time></trkpt><trkpt lat="39.91883945481806" lon="8.5578596337753"><ele>4.0</ele><time>2026-04-26T13:59:00.886Z</time></trkpt><trkpt lat="39.918784358331415" lon="8.55766352060663"><ele>4.0</ele><time>2026-04-26T13:59:01.886Z</time></trkpt><trkpt lat="39.91873204700633" lon="8.557465361838158"><ele>4.0</ele><time>2026-04-26T13:59:02.886Z</time></trkpt><trkpt lat="39.91868112555852" lon="8.557272887447473"><ele>4.0</ele><time>2026-04-26T13:59:03.886Z</time></trkpt><trkpt lat="39.91862719070323" lon="8.557078872611884"><ele>4.0</ele><time>2026-04-26T13:59:04.886Z</time></trkpt><trkpt lat="39.91857254615964" lon="8.556885308277476"><ele>4.0</ele><time>2026-04-26T13:59:05.886Z</time></trkpt><trkpt lat="39.91851789399754" lon="8.5566918914647"><ele>4.0</ele><time>2026-04-26T13:59:06.886Z</time></trkpt><trkpt lat="39.918461773000786" lon="8.556494952188121"><ele>4.0</ele><time>2026-04-26T13:59:07.886Z</time></trkpt><trkpt lat="39.91840722117657" lon="8.55629371945641"><ele>4.0</ele><time>2026-04-26T13:59:08.886Z</time></trkpt><trkpt lat="39.91835020908684" lon="8.55609099437645"><ele>3.6666666666666665</ele><time>2026-04-26T13:59:09.886Z</time></trkpt><trkpt lat="39.91829264284776" lon="8.555891143806013"><ele>3.333333333333333</ele><time>2026-04-26T13:59:10.886Z</time></trkpt><trkpt lat="39.918235797108345" lon="8.55568735067019"><ele>3.0</ele><time>2026-04-26T13:59:11.886Z</time></trkpt><trkpt lat="39.91817815403253" lon="8.555482169478891"><ele>3.0</ele><time>2026-04-26T13:59:12.886Z</time></trkpt><trkpt lat="39.91812290039073" lon="8.555283663232704"><ele>3.0</ele><time>2026-04-26T13:59:13.886Z</time></trkpt><trkpt lat="39.91806806484856" lon="8.555080828850953"><ele>3.0</ele><time>2026-04-26T13:59:14.886Z</time></trkpt><trkpt lat="39.9180134987679" lon="8.554881457686768"><ele>3.0</ele><time>2026-04-26T13:59:15.886Z</time></trkpt><trkpt lat="39.91795894453723" lon="8.554683489141492"><ele>3.0</ele><time>2026-04-26T13:59:16.886Z</time></trkpt><trkpt lat="39.91790428798413" lon="8.554491406593282"><ele>3.0</ele><time>2026-04-26T13:59:17.886Z</time></trkpt><trkpt lat="39.91784847242242" lon="8.554290558348372"><ele>3.25</ele><time>2026-04-26T13:59:18.885Z</time></trkpt><trkpt lat="39.91779432283485" lon="8.554100442601891"><ele>3.5</ele><time>2026-04-26T13:59:19.885Z</time></trkpt><trkpt lat="39.91774303248596" lon="8.553917815610378"><ele>3.75</ele><time>2026-04-26T13:59:20.885Z</time></trkpt><trkpt lat="39.91769234516598" lon="8.553741107711136"><ele>4.0</ele><time>2026-04-26T13:59:21.885Z</time></trkpt><trkpt lat="39.91764374453276" lon="8.553561282017418"><ele>4.0</ele><time>2026-04-26T13:59:22.886Z</time></trkpt><trkpt lat="39.917591813365995" lon="8.553384678703967"><ele>4.0</ele><time>2026-04-26T13:59:23.886Z</time></trkpt><trkpt lat="39.917541255488125" lon="8.553205787945075"><ele>4.0</ele><time>2026-04-26T13:59:24.886Z</time></trkpt><trkpt lat="39.91749016526305" lon="8.553022881770044"><ele>4.0</ele><time>2026-04-26T13:59:25.885Z</time></trkpt><trkpt lat="39.91743694679419" lon="8.552849379754981"><ele>4.0</ele><time>2026-04-26T13:59:26.885Z</time></trkpt><trkpt lat="39.91738392137752" lon="8.552671848442763"><ele>4.0</ele><time>2026-04-26T13:59:27.885Z</time></trkpt><trkpt lat="39.91732939627547" lon="8.55249362601636"><ele>4.0</ele><time>2026-04-26T13:59:28.885Z</time></trkpt><trkpt lat="39.91727505106608" lon="8.552310923006052"><ele>4.0</ele><time>2026-04-26T13:59:29.885Z</time></trkpt><trkpt lat="39.9172184910653" lon="8.552130530632134"><ele>4.0</ele><time>2026-04-26T13:59:30.885Z</time></trkpt><trkpt lat="39.91716522657838" lon="8.55194714208906"><ele>4.0</ele><time>2026-04-26T13:59:31.885Z</time></trkpt><trkpt lat="39.91711053685124" lon="8.551760339083652"><ele>4.0</ele><time>2026-04-26T13:59:32.885Z</time></trkpt><trkpt lat="39.91705420218203" lon="8.551573131935365"><ele>4.0</ele><time>2026-04-26T13:59:33.885Z</time></trkpt><trkpt lat="39.91699333368584" lon="8.551384659402007"><ele>4.0</ele><time>2026-04-26T13:59:34.885Z</time></trkpt><trkpt lat="39.91693441613736" lon="8.551196324595843"><ele>4.0</ele><time>2026-04-26T13:59:35.885Z</time></trkpt><trkpt lat="39.91687316813473" lon="8.551002315242215"><ele>3.6666666666666665</ele><time>2026-04-26T13:59:36.885Z</time></trkpt><trkpt lat="39.91681490034813" lon="8.550810435589415"><ele>3.333333333333333</ele><time>2026-04-26T13:59:37.885Z</time></trkpt><trkpt lat="39.91675730546926" lon="8.550621378785566"><ele>3.0</ele><time>2026-04-26T13:59:38.885Z</time></trkpt><trkpt lat="39.916699621548126" lon="8.550429868297776"><ele>3.333333333333333</ele><time>2026-04-26T13:59:39.885Z</time></trkpt><trkpt lat="39.91664240660823" lon="8.55024243743708"><ele>3.6666666666666665</ele><time>2026-04-26T13:59:40.885Z</time></trkpt><trkpt lat="39.91658319481251" lon="8.55005366717228"><ele>4.0</ele><time>2026-04-26T13:59:41.885Z</time></trkpt><trkpt lat="39.91652474607" lon="8.549860297031945"><ele>4.0</ele><time>2026-04-26T13:59:42.885Z</time></trkpt><trkpt lat="39.916467257421154" lon="8.549669813238681"><ele>4.0</ele><time>2026-04-26T13:59:43.885Z</time></trkpt><trkpt lat="39.91641183957193" lon="8.549479995631819"><ele>4.0</ele><time>2026-04-26T13:59:44.885Z</time></trkpt><trkpt lat="39.91635698746238" lon="8.549276677656609"><ele>4.0</ele><time>2026-04-26T13:59:45.885Z</time></trkpt><trkpt lat="39.91630022008869" lon="8.549070532760313"><ele>4.0</ele><time>2026-04-26T13:59:46.885Z</time></trkpt><trkpt lat="39.916240832681" lon="8.548874958673418"><ele>4.0</ele><time>2026-04-26T13:59:47.885Z</time></trkpt><trkpt lat="39.916184556108625" lon="8.548686354433876"><ele>3.6666666666666665</ele><time>2026-04-26T13:59:48.885Z</time></trkpt><trkpt lat="39.91612458622304" lon="8.548488845823305"><ele>3.333333333333333</ele><time>2026-04-26T13:59:49.885Z</time></trkpt><trkpt lat="39.9160656142097" lon="8.548294116692135"><ele>3.0</ele><time>2026-04-26T13:59:50.885Z</time></trkpt><trkpt lat="39.91600962703003" lon="8.548093597916871"><ele>3.0</ele><time>2026-04-26T13:59:51.885Z</time></trkpt><trkpt lat="39.91595214535811" lon="8.547887996538238"><ele>3.0</ele><time>2026-04-26T13:59:52.885Z</time></trkpt><trkpt lat="39.9158865343511" lon="8.547683635472799"><ele>3.0</ele><time>2026-04-26T13:59:53.885Z</time></trkpt><trkpt lat="39.915821974230965" lon="8.547481995065809"><ele>3.0</ele><time>2026-04-26T13:59:54.885Z</time></trkpt><trkpt lat="39.915761468684" lon="8.547285057045684"><ele>3.0</ele><time>2026-04-26T13:59:55.885Z</time></trkpt><trkpt lat="39.91569919489306" lon="8.54708706026731"><ele>3.0</ele><time>2026-04-26T13:59:56.885Z</time></trkpt><trkpt lat="39.91564182526912" lon="8.546889755316519"><ele>3.0</ele><time>2026-04-26T13:59:57.885Z</time></trkpt><trkpt lat="39.91558191722792" lon="8.546689376664673"><ele>3.0</ele><time>2026-04-26T13:59:58.885Z</time></trkpt><trkpt lat="39.91552279431691" lon="8.546487970717438"><ele>3.0</ele><time>2026-04-26T13:59:59.885Z</time></trkpt><trkpt lat="39.915462889830756" lon="8.54628850868028"><ele>2.6666666666666665</ele><time>2026-04-26T14:00:00.885Z</time></trkpt><trkpt lat="39.91540362608601" lon="8.54608428381462"><ele>2.333333333333333</ele><time>2026-04-26T14:00:01.885Z</time></trkpt><trkpt lat="39.915344563522915" lon="8.545884681610405"><ele>2.0</ele><time>2026-04-26T14:00:02.885Z</time></trkpt><trkpt lat="39.91528456094989" lon="8.545687537292737"><ele>2.0</ele><time>2026-04-26T14:00:03.885Z</time></trkpt><trkpt lat="39.91522164851695" lon="8.545485666045055"><ele>2.0</ele><time>2026-04-26T14:00:04.885Z</time></trkpt><trkpt lat="39.91515729835702" lon="8.545287928579524"><ele>2.0</ele><time>2026-04-26T14:00:05.885Z</time></trkpt><trkpt lat="39.91509773659022" lon="8.545088035079006"><ele>2.333333333333333</ele><time>2026-04-26T14:00:06.886Z</time></trkpt><trkpt lat="39.915039367029635" lon="8.544887520256129"><ele>2.6666666666666665</ele><time>2026-04-26T14:00:07.886Z</time></trkpt><trkpt lat="39.914978500874795" lon="8.54468445793979"><ele>3.0</ele><time>2026-04-26T14:00:08.886Z</time></trkpt><trkpt lat="39.914919432934155" lon="8.544487827256763"><ele>3.333333333333333</ele><time>2026-04-26T14:00:09.886Z</time></trkpt><trkpt lat="39.914856531391514" lon="8.544300399162815"><ele>3.6666666666666665</ele><time>2026-04-26T14:00:10.886Z</time></trkpt><trkpt lat="39.91480096185172" lon="8.544122729801202"><ele>4.0</ele><time>2026-04-26T14:00:11.886Z</time></trkpt><trkpt lat="39.914749196390154" lon="8.54394530325701"><ele>4.0</ele><time>2026-04-26T14:00:12.886Z</time></trkpt><trkpt lat="39.914701333416716" lon="8.543772917287114"><ele>4.0</ele><time>2026-04-26T14:00:13.886Z</time></trkpt><trkpt lat="39.91465969638326" lon="8.543614071770099"><ele>4.0</ele><time>2026-04-26T14:00:14.886Z</time></trkpt><trkpt lat="39.91462464600959" lon="8.543461395019103"><ele>4.0</ele><time>2026-04-26T14:00:15.886Z</time></trkpt><trkpt lat="39.91459360644989" lon="8.54330527580908"><ele>4.0</ele><time>2026-04-26T14:00:16.886Z</time></trkpt><trkpt lat="39.91455156200424" lon="8.543159592807584"><ele>4.0</ele><time>2026-04-26T14:00:17.886Z</time></trkpt><trkpt lat="39.914535093965604" lon="8.543034203739415"><ele>4.0</ele><time>2026-04-26T14:00:18.886Z</time></trkpt><trkpt lat="39.914538225532944" lon="8.542929699099052"><ele>4.0</ele><time>2026-04-26T14:00:19.886Z</time></trkpt><trkpt lat="39.91453530106908" lon="8.54280406717019"><ele>4.0</ele><time>2026-04-26T14:00:21.886Z</time></trkpt><trkpt lat="39.914570844441535" lon="8.542734588601627"><ele>4.4</ele><time>2026-04-26T14:00:22.886Z</time></trkpt><trkpt lat="39.914628650684044" lon="8.542660253301175"><ele>4.800000000000001</ele><time>2026-04-26T14:00:23.886Z</time></trkpt><trkpt lat="39.91466972003649" lon="8.542549118626434"><ele>5.199999999999999</ele><time>2026-04-26T14:00:24.886Z</time></trkpt><trkpt lat="39.91472160861906" lon="8.542425323598225"><ele>5.6</ele><time>2026-04-26T14:00:25.886Z</time></trkpt><trkpt lat="39.91470270590102" lon="8.542324933895856"><ele>6.0</ele><time>2026-04-26T14:00:26.886Z</time></trkpt><trkpt lat="39.91470412889729" lon="8.542198895250438"><ele>6.0</ele><time>2026-04-26T14:00:27.886Z</time></trkpt><trkpt lat="39.91476359108758" lon="8.542061867072725"><ele>6.0</ele><time>2026-04-26T14:00:28.886Z</time></trkpt><trkpt lat="39.91481606768106" lon="8.541929224150147"><ele>6.0</ele><time>2026-04-26T14:00:29.886Z</time></trkpt><trkpt lat="39.91487980797575" lon="8.541794160129246"><ele>6.0</ele><time>2026-04-26T14:00:30.886Z</time></trkpt><trkpt lat="39.91494904551816" lon="8.541652435744755"><ele>6.0</ele><time>2026-04-26T14:00:31.886Z</time></trkpt><trkpt lat="39.91502332213373" lon="8.541511570477443"><ele>6.0</ele><time>2026-04-26T14:00:32.886Z</time></trkpt><trkpt lat="39.915104744623164" lon="8.541370528994733"><ele>6.0</ele><time>2026-04-26T14:00:33.886Z</time></trkpt><trkpt lat="39.91519352199441" lon="8.54122649563707"><ele>6.0</ele><time>2026-04-26T14:00:34.886Z</time></trkpt><trkpt lat="39.91528813308889" lon="8.541088865524596"><ele>5.5</ele><time>2026-04-26T14:00:35.886Z</time></trkpt><trkpt lat="39.91539160306029" lon="8.540956715239238"><ele>5.0</ele><time>2026-04-26T14:00:36.886Z</time></trkpt><trkpt lat="39.91550644608981" lon="8.540844301104913"><ele>4.5</ele><time>2026-04-26T14:00:37.886Z</time></trkpt><trkpt lat="39.91563367770006" lon="8.540749672024893"><ele>4.0</ele><time>2026-04-26T14:00:38.886Z</time></trkpt><trkpt lat="39.915763607682464" lon="8.54066687335275"><ele>4.0</ele><time>2026-04-26T14:00:39.886Z</time></trkpt><trkpt lat="39.915896180201436" lon="8.54059269477446"><ele>4.0</ele><time>2026-04-26T14:00:40.886Z</time></trkpt><trkpt lat="39.9160316321555" lon="8.540522398902525"><ele>4.0</ele><time>2026-04-26T14:00:41.886Z</time></trkpt><trkpt lat="39.91617013982088" lon="8.540455328715439"><ele>4.0</ele><time>2026-04-26T14:00:42.886Z</time></trkpt><trkpt lat="39.91630564077415" lon="8.540384411427707"><ele>4.0</ele><time>2026-04-26T14:00:43.886Z</time></trkpt><trkpt lat="39.91644066236822" lon="8.540309108340033"><ele>4.0</ele><time>2026-04-26T14:00:44.886Z</time></trkpt><trkpt lat="39.9165765200539" lon="8.540232207034554"><ele>4.0</ele><time>2026-04-26T14:00:45.886Z</time></trkpt><trkpt lat="39.91671085847973" lon="8.540155014233902"><ele>4.0</ele><time>2026-04-26T14:00:46.886Z</time></trkpt><trkpt lat="39.916842156882744" lon="8.540075584806848"><ele>3.75</ele><time>2026-04-26T14:00:47.886Z</time></trkpt><trkpt lat="39.91696821885064" lon="8.539980731356545"><ele>3.5</ele><time>2026-04-26T14:00:48.886Z</time></trkpt><trkpt lat="39.91708208196045" lon="8.539865302908698"><ele>3.25</ele><time>2026-04-26T14:00:49.886Z</time></trkpt><trkpt lat="39.917200891328136" lon="8.539747561137773"><ele>3.0</ele><time>2026-04-26T14:00:50.886Z</time></trkpt><trkpt lat="39.917315476362994" lon="8.539629183212119"><ele>3.0</ele><time>2026-04-26T14:00:51.886Z</time></trkpt><trkpt lat="39.91743146456894" lon="8.539503198232168"><ele>3.0</ele><time>2026-04-26T14:00:52.886Z</time></trkpt><trkpt lat="39.91755174553864" lon="8.539378752026602"><ele>3.0</ele><time>2026-04-26T14:00:53.886Z</time></trkpt><trkpt lat="39.9176717819815" lon="8.53925378242756"><ele>3.0</ele><time>2026-04-26T14:00:54.886Z</time></trkpt><trkpt lat="39.917791197805066" lon="8.539127445208676"><ele>3.0</ele><time>2026-04-26T14:00:55.886Z</time></trkpt><trkpt lat="39.91791283920379" lon="8.539002369140595"><ele>3.0</ele><time>2026-04-26T14:00:56.886Z</time></trkpt><trkpt lat="39.91803413032716" lon="8.538876252500007"><ele>3.0</ele><time>2026-04-26T14:00:57.886Z</time></trkpt><trkpt lat="39.91815836901626" lon="8.53874583724161"><ele>3.0</ele><time>2026-04-26T14:00:58.886Z</time></trkpt><trkpt lat="39.918279550550906" lon="8.538616703135025"><ele>3.0</ele><time>2026-04-26T14:00:59.886Z</time></trkpt><trkpt lat="39.918396974305125" lon="8.538492270866291"><ele>2.75</ele><time>2026-04-26T14:01:00.886Z</time></trkpt><trkpt lat="39.918507989784395" lon="8.538377335297497"><ele>2.5</ele><time>2026-04-26T14:01:01.886Z</time></trkpt><trkpt lat="39.91861081007681" lon="8.538277238471359"><ele>2.25</ele><time>2026-04-26T14:01:02.886Z</time></trkpt><trkpt lat="39.918710363248465" lon="8.538188431613488"><ele>2.0</ele><time>2026-04-26T14:01:03.886Z</time></trkpt><trkpt lat="39.91880750208042" lon="8.538106852292971"><ele>2.0</ele><time>2026-04-26T14:01:04.886Z</time></trkpt><trkpt lat="39.91889229606538" lon="8.538016045070668"><ele>2.0</ele><time>2026-04-26T14:01:05.886Z</time></trkpt><trkpt lat="39.91898977572805" lon="8.537960129449207"><ele>2.0</ele><time>2026-04-26T14:01:06.886Z</time></trkpt><trkpt lat="39.91908468122046" lon="8.537914650941604"><ele>2.0</ele><time>2026-04-26T14:01:07.886Z</time></trkpt><trkpt lat="39.919184913121455" lon="8.537944727118393"><ele>2.0</ele><time>2026-04-26T14:01:08.886Z</time></trkpt><trkpt lat="39.919273756303255" lon="8.537939690037685"><ele>2.0</ele><time>2026-04-26T14:01:09.886Z</time></trkpt><trkpt lat="39.919356655245984" lon="8.537923027397"><ele>1.9999999999999998</ele><time>2026-04-26T14:01:10.886Z</time></trkpt><trkpt lat="39.919425098407665" lon="8.537877942375273"><ele>2.0</ele><time>2026-04-26T14:01:11.886Z</time></trkpt><trkpt lat="39.919489979019936" lon="8.537826871898213"><ele>2.0</ele><time>2026-04-26T14:01:12.886Z</time></trkpt><trkpt lat="39.91952898851456" lon="8.537747726567044"><ele>1.9999999999999998</ele><time>2026-04-26T14:01:13.886Z</time></trkpt><trkpt lat="39.919554912734654" lon="8.53766563442085"><ele>2.0</ele><time>2026-04-26T14:01:14.886Z</time></trkpt><trkpt lat="39.919560233551046" lon="8.537572327264536"><ele>2.0</ele><time>2026-04-26T14:01:15.886Z</time></trkpt><trkpt lat="39.919551315257344" lon="8.537482774694272"><ele>1.8333333333333333</ele><time>2026-04-26T14:01:16.886Z</time></trkpt><trkpt lat="39.91952535371168" lon="8.537388096489826"><ele>1.6666666666666665</ele><time>2026-04-26T14:01:17.886Z</time></trkpt><trkpt lat="39.919484483161945" lon="8.537296586642992"><ele>1.5</ele><time>2026-04-26T14:01:18.886Z</time></trkpt><trkpt lat="39.919426753665036" lon="8.537202078993817"><ele>1.3333333333333333</ele><time>2026-04-26T14:01:19.886Z</time></trkpt><trkpt lat="39.919362526480604" lon="8.53711220663263"><ele>1.1666666666666665</ele><time>2026-04-26T14:01:20.886Z</time></trkpt><trkpt lat="39.919303186260294" lon="8.537012610995804"><ele>1.0</ele><time>2026-04-26T14:01:21.886Z</time></trkpt><trkpt lat="39.91925527786212" lon="8.536887966724711"><ele>1.0</ele><time>2026-04-26T14:01:22.886Z</time></trkpt><trkpt lat="39.919216114574134" lon="8.536761612608744"><ele>1.0</ele><time>2026-04-26T14:01:23.886Z</time></trkpt><trkpt lat="39.919163028800774" lon="8.536629534671501"><ele>1.0</ele><time>2026-04-26T14:01:24.885Z</time></trkpt><trkpt lat="39.91914593629151" lon="8.536463458507916"><ele>1.0</ele><time>2026-04-26T14:01:25.885Z</time></trkpt><trkpt lat="39.91911078597345" lon="8.53629646236368"><ele>1.0</ele><time>2026-04-26T14:01:26.885Z</time></trkpt><trkpt lat="39.91907599145482" lon="8.536124089160941"><ele>1.0</ele><time>2026-04-26T14:01:27.885Z</time></trkpt><trkpt lat="39.919057360988646" lon="8.53594050168972"><ele>1.0</ele><time>2026-04-26T14:01:28.886Z</time></trkpt><trkpt lat="39.91902262382533" lon="8.535767505445945"><ele>1.0</ele><time>2026-04-26T14:01:29.886Z</time></trkpt><trkpt lat="39.91898882259459" lon="8.535592111951308"><ele>1.0</ele><time>2026-04-26T14:01:30.886Z</time></trkpt><trkpt lat="39.91895746394991" lon="8.535415992890139"><ele>1.0</ele><time>2026-04-26T14:01:31.885Z</time></trkpt><trkpt lat="39.91892649526544" lon="8.535240701133617"><ele>1.0</ele><time>2026-04-26T14:01:32.885Z</time></trkpt><trkpt lat="39.91889245530909" lon="8.535068425898492"><ele>1.0</ele><time>2026-04-26T14:01:33.885Z</time></trkpt><trkpt lat="39.918860081159025" lon="8.534895379210903"><ele>1.0</ele><time>2026-04-26T14:01:34.885Z</time></trkpt><trkpt lat="39.91882914667181" lon="8.534716902356056"><ele>1.0</ele><time>2026-04-26T14:01:35.885Z</time></trkpt><trkpt lat="39.918794929610236" lon="8.534532029914713"><ele>1.0</ele><time>2026-04-26T14:01:36.885Z</time></trkpt><trkpt lat="39.918759308270246" lon="8.534346622682351"><ele>1.0</ele><time>2026-04-26T14:01:37.885Z</time></trkpt><trkpt lat="39.91872088817693" lon="8.534152074966373"><ele>1.0</ele><time>2026-04-26T14:01:38.885Z</time></trkpt><trkpt lat="39.91868437150296" lon="8.533955241326995"><ele>1.0</ele><time>2026-04-26T14:01:39.885Z</time></trkpt><trkpt lat="39.91864446420137" lon="8.533758364699313"><ele>1.0</ele><time>2026-04-26T14:01:40.885Z</time></trkpt><trkpt lat="39.91860892008958" lon="8.533561706961068"><ele>1.0</ele><time>2026-04-26T14:01:41.885Z</time></trkpt><trkpt lat="39.91857467819265" lon="8.53336224484978"><ele>1.0</ele><time>2026-04-26T14:01:42.885Z</time></trkpt><trkpt lat="39.918538954144054" lon="8.533162603040886"><ele>1.0</ele><time>2026-04-26T14:01:43.885Z</time></trkpt><trkpt lat="39.91850294747111" lon="8.532965069454526"><ele>1.0</ele><time>2026-04-26T14:01:44.885Z</time></trkpt><trkpt lat="39.91846605036468" lon="8.532768105536167"><ele>1.0</ele><time>2026-04-26T14:01:45.885Z</time></trkpt><trkpt lat="39.91843036781551" lon="8.532577300118847"><ele>1.0</ele><time>2026-04-26T14:01:46.885Z</time></trkpt><trkpt lat="39.91839239687299" lon="8.532376747643792"><ele>1.3333333333333333</ele><time>2026-04-26T14:01:47.885Z</time></trkpt><trkpt lat="39.9183548321741" lon="8.53217808502672"><ele>1.6666666666666665</ele><time>2026-04-26T14:01:48.885Z</time></trkpt><trkpt lat="39.91831709688219" lon="8.531980180984446"><ele>2.0</ele><time>2026-04-26T14:01:49.885Z</time></trkpt><trkpt lat="39.91827807734263" lon="8.531771741814062"><ele>2.0</ele><time>2026-04-26T14:01:50.885Z</time></trkpt><trkpt lat="39.918238457607146" lon="8.531565418146187"><ele>2.0</ele><time>2026-04-26T14:01:51.885Z</time></trkpt><trkpt lat="39.918198641849685" lon="8.531360808694673"><ele>2.0</ele><time>2026-04-26T14:01:52.885Z</time></trkpt><trkpt lat="39.91816186754114" lon="8.531154613791323"><ele>1.6666666666666665</ele><time>2026-04-26T14:01:53.885Z</time></trkpt><trkpt lat="39.91812734333805" lon="8.53096132558986"><ele>1.3333333333333333</ele><time>2026-04-26T14:01:54.885Z</time></trkpt><trkpt lat="39.91808941362284" lon="8.530759361264359"><ele>1.0</ele><time>2026-04-26T14:01:55.886Z</time></trkpt><trkpt lat="39.91805324597205" lon="8.530555270762743"><ele>1.0</ele><time>2026-04-26T14:01:56.886Z</time></trkpt><trkpt lat="39.91801938302219" lon="8.530347054324771"><ele>1.0</ele><time>2026-04-26T14:01:57.886Z</time></trkpt><trkpt lat="39.91799173357005" lon="8.530148746969505"><ele>1.0</ele><time>2026-04-26T14:01:58.886Z</time></trkpt><trkpt lat="39.917970216163745" lon="8.529948557747867"><ele>1.0</ele><time>2026-04-26T14:01:59.886Z</time></trkpt><trkpt lat="39.917952681695375" lon="8.529743246402955"><ele>1.0</ele><time>2026-04-26T14:02:00.886Z</time></trkpt><trkpt lat="39.917940141978555" lon="8.529536009476132"><ele>1.0</ele><time>2026-04-26T14:02:01.886Z</time></trkpt><trkpt lat="39.91793615300742" lon="8.529330718022669"><ele>1.3333333333333333</ele><time>2026-04-26T14:02:02.886Z</time></trkpt><trkpt lat="39.91793525320328" lon="8.52913280742108"><ele>1.6666666666666665</ele><time>2026-04-26T14:02:03.886Z</time></trkpt><trkpt lat="39.917938311614" lon="8.528928191534593"><ele>2.0</ele><time>2026-04-26T14:02:04.886Z</time></trkpt><trkpt lat="39.917944871332665" lon="8.528725890737872"><ele>2.0</ele><time>2026-04-26T14:02:05.886Z</time></trkpt><trkpt lat="39.91796146942947" lon="8.528524921211663"><ele>2.0</ele><time>2026-04-26T14:02:06.886Z</time></trkpt><trkpt lat="39.9179842212361" lon="8.528325370728751"><ele>2.0</ele><time>2026-04-26T14:02:07.886Z</time></trkpt><trkpt lat="39.91801096112733" lon="8.528125029317165"><ele>2.0</ele><time>2026-04-26T14:02:08.886Z</time></trkpt><trkpt lat="39.91804157212359" lon="8.527926927850235"><ele>2.0</ele><time>2026-04-26T14:02:09.886Z</time></trkpt><trkpt lat="39.91807307290313" lon="8.527739869770855"><ele>2.0</ele><time>2026-04-26T14:02:10.886Z</time></trkpt><trkpt lat="39.91811034358067" lon="8.527553670965036"><ele>2.0</ele><time>2026-04-26T14:02:11.886Z</time></trkpt><trkpt lat="39.91814735538126" lon="8.527370713116234"><ele>1.75</ele><time>2026-04-26T14:02:12.886Z</time></trkpt><trkpt lat="39.91817984886982" lon="8.527200848542662"><ele>1.5</ele><time>2026-04-26T14:02:13.886Z</time></trkpt><trkpt lat="39.918209987582955" lon="8.527051444148928"><ele>1.25</ele><time>2026-04-26T14:02:14.886Z</time></trkpt><trkpt lat="39.918238123292674" lon="8.526898174569352"><ele>1.0</ele><time>2026-04-26T14:02:15.886Z</time></trkpt><trkpt lat="39.91827029473767" lon="8.526744566996733"><ele>1.0</ele><time>2026-04-26T14:02:16.886Z</time></trkpt><trkpt lat="39.918298302116604" lon="8.52658944272443"><ele>1.0</ele><time>2026-04-26T14:02:17.886Z</time></trkpt><trkpt lat="39.91833112352069" lon="8.526436667076224"><ele>1.0</ele><time>2026-04-26T14:02:18.886Z</time></trkpt><trkpt lat="39.918358598624316" lon="8.526283864046684"><ele>1.0</ele><time>2026-04-26T14:02:19.886Z</time></trkpt><trkpt lat="39.91838797347075" lon="8.526121880506544"><ele>0.75</ele><time>2026-04-26T14:02:20.886Z</time></trkpt><trkpt lat="39.91842173269807" lon="8.525948364733287"><ele>0.5</ele><time>2026-04-26T14:02:21.886Z</time></trkpt><trkpt lat="39.91845579764536" lon="8.52577309625485"><ele>0.25</ele><time>2026-04-26T14:02:22.886Z</time></trkpt><trkpt lat="39.9184919551468" lon="8.525597944352882"><ele>0.0</ele><time>2026-04-26T14:02:23.886Z</time></trkpt><trkpt lat="39.918526332804845" lon="8.525414893698589"><ele>-0.25</ele><time>2026-04-26T14:02:24.886Z</time></trkpt><trkpt lat="39.91856252042718" lon="8.52522719554796"><ele>-0.5</ele><time>2026-04-26T14:02:25.886Z</time></trkpt><trkpt lat="39.91859940445981" lon="8.525040423570257"><ele>-0.75</ele><time>2026-04-26T14:02:26.886Z</time></trkpt><trkpt lat="39.91863616050117" lon="8.524850253778693"><ele>-1.0</ele><time>2026-04-26T14:02:27.886Z</time></trkpt><trkpt lat="39.91867205298709" lon="8.524661928541999"><ele>-0.75</ele><time>2026-04-26T14:02:28.886Z</time></trkpt><trkpt lat="39.91871210941544" lon="8.524474455205326"><ele>-0.5</ele><time>2026-04-26T14:02:29.886Z</time></trkpt><trkpt lat="39.91874769934589" lon="8.524286805313364"><ele>-0.25</ele><time>2026-04-26T14:02:30.886Z</time></trkpt><trkpt lat="39.91878383090347" lon="8.524100509206168"><ele>0.0</ele><time>2026-04-26T14:02:31.886Z</time></trkpt><trkpt lat="39.91881925040093" lon="8.523916787659608"><ele>0.0</ele><time>2026-04-26T14:02:32.886Z</time></trkpt><trkpt lat="39.91885317227066" lon="8.523738661960662"><ele>0.0</ele><time>2026-04-26T14:02:33.886Z</time></trkpt><trkpt lat="39.918885259413265" lon="8.52357654430678"><ele>0.0</ele><time>2026-04-26T14:02:34.886Z</time></trkpt><trkpt lat="39.91891671094778" lon="8.523419114670483"><ele>0.0</ele><time>2026-04-26T14:02:35.886Z</time></trkpt><trkpt lat="39.9189461181963" lon="8.523267964270785"><ele>0.0</ele><time>2026-04-26T14:02:36.886Z</time></trkpt><trkpt lat="39.918976362719555" lon="8.523125290443792"><ele>0.0</ele><time>2026-04-26T14:02:37.886Z</time></trkpt><trkpt lat="39.91900501882765" lon="8.52298494253534"><ele>0.0</ele><time>2026-04-26T14:02:38.886Z</time></trkpt><trkpt lat="39.91903269590485" lon="8.522840610692938"><ele>0.0</ele><time>2026-04-26T14:02:39.886Z</time></trkpt><trkpt lat="39.91905906153207" lon="8.522704054675701"><ele>0.0</ele><time>2026-04-26T14:02:40.886Z</time></trkpt><trkpt lat="39.91907987467383" lon="8.52258005505829"><ele>0.0</ele><time>2026-04-26T14:02:41.886Z</time></trkpt><trkpt lat="39.91909898046316" lon="8.522456435908541"><ele>0.0</ele><time>2026-04-26T14:02:42.886Z</time></trkpt><trkpt lat="39.91911353404207" lon="8.522349887279079"><ele>0.0</ele><time>2026-04-26T14:02:43.886Z</time></trkpt><trkpt lat="39.91912645422623" lon="8.522244886608668"><ele>0.0</ele><time>2026-04-26T14:02:44.886Z</time></trkpt><trkpt lat="39.91913484615606" lon="8.522157088062576"><ele>0.0</ele><time>2026-04-26T14:02:45.886Z</time></trkpt><trkpt lat="39.9191398395047" lon="8.522029637434938"><ele>0.0</ele><time>2026-04-26T14:02:47.886Z</time></trkpt><trkpt lat="39.91912029039928" lon="8.521917919706702"><ele>0.2</ele><time>2026-04-26T14:05:00.886Z</time></trkpt><trkpt lat="39.919117299637826" lon="8.521767343350113"><ele>0.4</ele><time>2026-04-26T14:05:02.886Z</time></trkpt><trkpt lat="39.919113996258545" lon="8.521683299869716"><ele>0.6000000000000001</ele><time>2026-04-26T14:05:03.886Z</time></trkpt><trkpt lat="39.919109762390406" lon="8.521525379511253"><ele>0.8</ele><time>2026-04-26T14:05:05.886Z</time></trkpt><trkpt lat="39.91911541648975" lon="8.521379980783692"><ele>1.0</ele><time>2026-04-26T14:05:07.886Z</time></trkpt><trkpt lat="39.91914219114932" lon="8.521220420427959"><ele>0.9999999999999999</ele><time>2026-04-26T14:05:09.886Z</time></trkpt><trkpt lat="39.919165457084226" lon="8.521141052145339"><ele>1.0</ele><time>2026-04-26T14:05:10.886Z</time></trkpt><trkpt lat="39.91920665532951" lon="8.52107837016625"><ele>1.0</ele><time>2026-04-26T14:05:11.886Z</time></trkpt><trkpt lat="39.91920864820309" lon="8.520933901743668"><ele>1.0</ele><time>2026-04-26T14:05:13.886Z</time></trkpt><trkpt lat="39.9191758110819" lon="8.520850566453475"><ele>0.9999999999999999</ele><time>2026-04-26T14:05:14.886Z</time></trkpt><trkpt lat="39.919120160872644" lon="8.520781914374568"><ele>1.0</ele><time>2026-04-26T14:05:15.886Z</time></trkpt><trkpt lat="39.91905606932224" lon="8.520719930531282"><ele>0.9999999999999999</ele><time>2026-04-26T14:05:16.886Z</time></trkpt><trkpt lat="39.919004082173686" lon="8.520644685089225"><ele>1.0</ele><time>2026-04-26T14:05:17.886Z</time></trkpt><trkpt lat="39.91895731980358" lon="8.52056423740025"><ele>1.0</ele><time>2026-04-26T14:05:18.886Z</time></trkpt><trkpt lat="39.918909168594155" lon="8.520479211809212"><ele>1.0</ele><time>2026-04-26T14:05:19.886Z</time></trkpt><trkpt lat="39.91885917986596" lon="8.520386921720453"><ele>0.9999999999999999</ele><time>2026-04-26T14:05:20.886Z</time></trkpt><trkpt lat="39.91881174809156" lon="8.520287549569492"><ele>1.0</ele><time>2026-04-26T14:05:21.886Z</time></trkpt><trkpt lat="39.91876744334742" lon="8.520183676013136"><ele>0.6000000000000001</ele><time>2026-04-26T14:05:22.886Z</time></trkpt><trkpt lat="39.918704152975344" lon="8.520090117249591"><ele>0.20000000000000007</ele><time>2026-04-26T14:05:23.886Z</time></trkpt><trkpt lat="39.918651705181986" lon="8.519981754272063"><ele>-0.20000000000000007</ele><time>2026-04-26T14:05:24.886Z</time></trkpt><trkpt lat="39.91858568678909" lon="8.519887213834606"><ele>-0.6000000000000001</ele><time>2026-04-26T14:05:25.886Z</time></trkpt><trkpt lat="39.918554711396354" lon="8.519744469993029"><ele>-1.0</ele><time>2026-04-26T14:05:26.886Z</time></trkpt><trkpt lat="39.91849970201131" lon="8.519621257096432"><ele>-0.8</ele><time>2026-04-26T14:05:27.886Z</time></trkpt><trkpt lat="39.918451942581505" lon="8.519498625418512"><ele>-0.6000000000000001</ele><time>2026-04-26T14:05:28.886Z</time></trkpt><trkpt lat="39.91840192823703" lon="8.519372264079324"><ele>-0.4</ele><time>2026-04-26T14:05:29.886Z</time></trkpt><trkpt lat="39.91835000699504" lon="8.519243568221494"><ele>-0.2</ele><time>2026-04-26T14:05:30.886Z</time></trkpt><trkpt lat="39.918298432428074" lon="8.519111574193872"><ele>0.0</ele><time>2026-04-26T14:05:31.886Z</time></trkpt><trkpt lat="39.91824688129481" lon="8.518979250599745"><ele>0.0</ele><time>2026-04-26T14:05:32.886Z</time></trkpt><trkpt lat="39.91819584955919" lon="8.518848312479955"><ele>0.0</ele><time>2026-04-26T14:05:33.886Z</time></trkpt><trkpt lat="39.9181443151264" lon="8.518715136903166"><ele>0.0</ele><time>2026-04-26T14:05:34.886Z</time></trkpt><trkpt lat="39.91809346349664" lon="8.518583466973498"><ele>0.0</ele><time>2026-04-26T14:05:35.886Z</time></trkpt><trkpt lat="39.918046457136946" lon="8.518447866550009"><ele>0.0</ele><time>2026-04-26T14:05:36.885Z</time></trkpt><trkpt lat="39.91800449003607" lon="8.518307746521641"><ele>0.0</ele><time>2026-04-26T14:05:37.886Z</time></trkpt><trkpt lat="39.917971135499045" lon="8.51816374785461"><ele>0.0</ele><time>2026-04-26T14:05:38.886Z</time></trkpt><trkpt lat="39.91794639970526" lon="8.518016496849723"><ele>0.0</ele><time>2026-04-26T14:05:39.886Z</time></trkpt><trkpt lat="39.917931596101205" lon="8.517864514958962"><ele>0.5</ele><time>2026-04-26T14:05:40.886Z</time></trkpt><trkpt lat="39.91792424192292" lon="8.517711622954067"><ele>1.0</ele><time>2026-04-26T14:05:41.886Z</time></trkpt><trkpt lat="39.91792269751068" lon="8.517556289272166"><ele>1.5</ele><time>2026-04-26T14:05:42.885Z</time></trkpt><trkpt lat="39.91792846511848" lon="8.517400454132126"><ele>2.0</ele><time>2026-04-26T14:05:43.885Z</time></trkpt><trkpt lat="39.91794888850318" lon="8.51724752934236"><ele>2.0</ele><time>2026-04-26T14:05:44.885Z</time></trkpt><trkpt lat="39.917985928873115" lon="8.517100075341569"><ele>2.0</ele><time>2026-04-26T14:05:45.885Z</time></trkpt><trkpt lat="39.918032233275504" lon="8.516964713679105"><ele>2.0</ele><time>2026-04-26T14:05:46.885Z</time></trkpt><trkpt lat="39.91807695773971" lon="8.516856356166553"><ele>2.0</ele><time>2026-04-26T14:05:47.885Z</time></trkpt><trkpt lat="39.91810456445586" lon="8.516781669002354"><ele>2.0</ele><time>2026-04-26T14:05:48.886Z</time></trkpt><trkpt lat="39.918147065960206" lon="8.51670964878101"><ele>2.0</ele><time>2026-04-26T14:05:50.886Z</time></trkpt><trkpt lat="39.91819815542109" lon="8.516659038756965"><ele>1.9999999999999998</ele><time>2026-04-26T14:05:55.886Z</time></trkpt><trkpt lat="39.91822708290105" lon="8.516530871385674"><ele>2.0</ele><time>2026-04-26T14:05:57.886Z</time></trkpt><trkpt lat="39.91825193019625" lon="8.516453296583121"><ele>2.0</ele><time>2026-04-26T14:05:58.886Z</time></trkpt><trkpt lat="39.91827895941892" lon="8.516368909685951"><ele>1.9999999999999998</ele><time>2026-04-26T14:05:59.886Z</time></trkpt><trkpt lat="39.91830596010434" lon="8.516284611884787"><ele>2.0</ele><time>2026-04-26T14:06:00.886Z</time></trkpt><trkpt lat="39.91833484033625" lon="8.516194446018192"><ele>2.0</ele><time>2026-04-26T14:06:01.886Z</time></trkpt><trkpt lat="39.91836618028062" lon="8.516096600764538"><ele>1.9999999999999998</ele><time>2026-04-26T14:06:02.886Z</time></trkpt><trkpt lat="39.9183959107863" lon="8.51600378029936"><ele>2.0</ele><time>2026-04-26T14:06:03.886Z</time></trkpt><trkpt lat="39.91842409551479" lon="8.515915785829804"><ele>2.0</ele><time>2026-04-26T14:06:04.886Z</time></trkpt><trkpt lat="39.91844927685084" lon="8.515837052378929"><ele>2.0</ele><time>2026-04-26T14:06:05.886Z</time></trkpt><trkpt lat="39.91849432772344" lon="8.515695773374707"><ele>1.9999999999999998</ele><time>2026-04-26T14:06:07.886Z</time></trkpt><trkpt lat="39.91853902499351" lon="8.515555603234183"><ele>2.0</ele><time>2026-04-26T14:06:09.886Z</time></trkpt><trkpt lat="39.91858813005386" lon="8.51540161033636"><ele>2.0</ele><time>2026-04-26T14:06:11.886Z</time></trkpt><trkpt lat="39.918627622407094" lon="8.51531090983443"><ele>1.9999999999999998</ele><time>2026-04-26T14:06:12.886Z</time></trkpt><trkpt lat="39.9186706624544" lon="8.515215736643679"><ele>2.0</ele><time>2026-04-26T14:06:13.886Z</time></trkpt><trkpt lat="39.918714385860774" lon="8.515125556880443"><ele>2.0</ele><time>2026-04-26T14:06:14.886Z</time></trkpt><trkpt lat="39.91875585779527" lon="8.515047989621541"><ele>1.9999999999999998</ele><time>2026-04-26T14:06:15.886Z</time></trkpt><trkpt lat="39.9187944968747" lon="8.514982993823049"><ele>2.0</ele><time>2026-04-26T14:06:16.886Z</time></trkpt><trkpt lat="39.91880886986138" lon="8.514900042840837"><ele>2.0</ele><time>2026-04-26T14:06:17.886Z</time></trkpt><trkpt lat="39.918824431817676" lon="8.514806679952546"><ele>2.0</ele><time>2026-04-26T14:06:18.886Z</time></trkpt><trkpt lat="39.918836880943346" lon="8.51471687391597"><ele>2.0</ele><time>2026-04-26T14:06:19.886Z</time></trkpt><trkpt lat="39.9188582173892" lon="8.514534216697635"><ele>2.0</ele><time>2026-04-26T14:06:21.886Z</time></trkpt><trkpt lat="39.91888437113809" lon="8.514390321277563"><ele>2.0</ele><time>2026-04-26T14:06:23.886Z</time></trkpt><trkpt lat="39.91889803103909" lon="8.514247813171087"><ele>2.0</ele><time>2026-04-26T14:06:25.886Z</time></trkpt><trkpt lat="39.918899024625084" lon="8.514145261267622"><ele>2.0</ele><time>2026-04-26T14:06:26.886Z</time></trkpt><trkpt lat="39.91889733168404" lon="8.514023902086661"><ele>2.0</ele><time>2026-04-26T14:06:27.886Z</time></trkpt><trkpt lat="39.91888164710717" lon="8.513892179364548"><ele>2.0</ele><time>2026-04-26T14:06:29.886Z</time></trkpt><trkpt lat="39.9188843364986" lon="8.513775280768487"><ele>2.0</ele><time>2026-04-26T14:06:30.886Z</time></trkpt><trkpt lat="39.91952235052888" lon="8.51359673343821"><ele>1.75</ele><time>2026-04-26T14:06:31.886Z</time></trkpt><trkpt lat="39.9195724329829" lon="8.513442794229757"><ele>1.5</ele><time>2026-04-26T14:06:32.886Z</time></trkpt><trkpt lat="39.91959952073321" lon="8.513284720043714"><ele>1.25</ele><time>2026-04-26T14:06:33.886Z</time></trkpt><trkpt lat="39.91962544386723" lon="8.513141165705921"><ele>1.0</ele><time>2026-04-26T14:06:34.886Z</time></trkpt><trkpt lat="39.919647429595045" lon="8.512995994865703"><ele>1.0</ele><time>2026-04-26T14:06:35.886Z</time></trkpt><trkpt lat="39.91967791014496" lon="8.512857022566028"><ele>1.0</ele><time>2026-04-26T14:06:36.886Z</time></trkpt><trkpt lat="39.91971117326791" lon="8.512730417100007"><ele>1.0</ele><time>2026-04-26T14:06:37.886Z</time></trkpt><trkpt lat="39.91974920943292" lon="8.512606964733612"><ele>1.0</ele><time>2026-04-26T14:06:38.886Z</time></trkpt><trkpt lat="39.91978444236236" lon="8.51248122152415"><ele>1.0</ele><time>2026-04-26T14:06:39.886Z</time></trkpt><trkpt lat="39.91981814436517" lon="8.512363609079628"><ele>0.9999999999999999</ele><time>2026-04-26T14:06:40.886Z</time></trkpt><trkpt lat="39.91985420926669" lon="8.51224676684262"><ele>1.0</ele><time>2026-04-26T14:06:41.886Z</time></trkpt><trkpt lat="39.919887555025696" lon="8.51214243288843"><ele>1.0</ele><time>2026-04-26T14:06:42.886Z</time></trkpt><trkpt lat="39.91991989718938" lon="8.512044992334754"><ele>1.0</ele><time>2026-04-26T14:06:43.886Z</time></trkpt><trkpt lat="39.91994570622783" lon="8.511961376563617"><ele>0.9999999999999999</ele><time>2026-04-26T14:06:44.886Z</time></trkpt><trkpt lat="39.91997514112534" lon="8.51182229888289"><ele>1.0</ele><time>2026-04-26T14:06:46.886Z</time></trkpt><trkpt lat="39.92000422459576" lon="8.511687950826172"><ele>1.1428571428571428</ele><time>2026-04-26T14:06:48.886Z</time></trkpt><trkpt lat="39.92002675551941" lon="8.511600383614065"><ele>1.2857142857142856</ele><time>2026-04-26T14:06:50.886Z</time></trkpt><trkpt lat="39.92000879867266" lon="8.51150957875191"><ele>1.4285714285714284</ele><time>2026-04-26T14:08:26.885Z</time></trkpt><trkpt lat="39.919988795913746" lon="8.511593125191885"><ele>1.5714285714285714</ele><time>2026-04-26T14:08:33.885Z</time></trkpt><trkpt lat="39.92000353817153" lon="8.511682629870075"><ele>1.714285714285714</ele><time>2026-04-26T14:08:36.885Z</time></trkpt><trkpt lat="39.91997587203443" lon="8.511767178968844"><ele>1.857142857142857</ele><time>2026-04-26T14:08:45.886Z</time></trkpt><trkpt lat="39.91996522192113" lon="8.511870343292887"><ele>2.0</ele><time>2026-04-26T14:12:19.886Z</time></trkpt><trkpt lat="39.9199503306181" lon="8.511961903200516"><ele>2.0</ele><time>2026-04-26T14:12:21.886Z</time></trkpt><trkpt lat="39.91992048005925" lon="8.512058420961822"><ele>2.0</ele><time>2026-04-26T14:12:23.886Z</time></trkpt><trkpt lat="39.91988608048374" lon="8.51217514563427"><ele>2.0</ele><time>2026-04-26T14:12:25.886Z</time></trkpt><trkpt lat="39.91986184580313" lon="8.512251036968623"><ele>2.0</ele><time>2026-04-26T14:12:26.886Z</time></trkpt><trkpt lat="39.91982251343335" lon="8.512393258009524"><ele>2.0</ele><time>2026-04-26T14:12:28.886Z</time></trkpt><trkpt lat="39.919760702811196" lon="8.51257888451063"><ele>1.857142857142857</ele><time>2026-04-26T14:12:30.886Z</time></trkpt><trkpt lat="39.91973456613216" lon="8.512663750917792"><ele>1.714285714285714</ele><time>2026-04-26T14:12:31.886Z</time></trkpt><trkpt lat="39.9197075794922" lon="8.51274757997232"><ele>1.5714285714285714</ele><time>2026-04-26T14:12:32.886Z</time></trkpt><trkpt lat="39.919678001498276" lon="8.512836034132432"><ele>1.4285714285714284</ele><time>2026-04-26T14:12:33.886Z</time></trkpt><trkpt lat="39.91964951561069" lon="8.512929460393247"><ele>1.2857142857142856</ele><time>2026-04-26T14:12:34.886Z</time></trkpt><trkpt lat="39.91962394581459" lon="8.513032562421401"><ele>1.1428571428571428</ele><time>2026-04-26T14:12:35.886Z</time></trkpt><trkpt lat="39.91960795482489" lon="8.513122435477303"><ele>1.0</ele><time>2026-04-26T14:12:36.886Z</time></trkpt><trkpt lat="39.91959212720558" lon="8.513208983890005"><ele>0.9999999999999999</ele><time>2026-04-26T14:12:37.886Z</time></trkpt><trkpt lat="39.91957238485718" lon="8.513298422234044"><ele>1.0</ele><time>2026-04-26T14:12:38.886Z</time></trkpt><trkpt lat="39.91954697419451" lon="8.513390511028671"><ele>1.0</ele><time>2026-04-26T14:12:39.886Z</time></trkpt><trkpt lat="39.91951436353534" lon="8.51348426801853"><ele>1.0</ele><time>2026-04-26T14:12:40.886Z</time></trkpt><trkpt lat="39.91947992380489" lon="8.51358594554334"><ele>0.9999999999999999</ele><time>2026-04-26T14:12:41.886Z</time></trkpt><trkpt lat="39.91945892091099" lon="8.513687809092444"><ele>1.0</ele><time>2026-04-26T14:12:42.886Z</time></trkpt><trkpt lat="39.919447006966394" lon="8.513787208406761"><ele>0.8571428571428571</ele><time>2026-04-26T14:12:43.886Z</time></trkpt><trkpt lat="39.919435502266424" lon="8.513882825528496"><ele>0.7142857142857142</ele><time>2026-04-26T14:12:44.886Z</time></trkpt><trkpt lat="39.91942450304591" lon="8.51397422313608"><ele>0.5714285714285714</ele><time>2026-04-26T14:12:45.886Z</time></trkpt><trkpt lat="39.91941478000936" lon="8.5140644038447"><ele>0.42857142857142855</ele><time>2026-04-26T14:12:46.886Z</time></trkpt><trkpt lat="39.919410001163826" lon="8.514153495156561"><ele>0.2857142857142857</ele><time>2026-04-26T14:12:47.886Z</time></trkpt><trkpt lat="39.91940784875908" lon="8.514246364967747"><ele>0.14285714285714285</ele><time>2026-04-26T14:12:48.886Z</time></trkpt><trkpt lat="39.91940879519571" lon="8.514339465989417"><ele>0.0</ele><time>2026-04-26T14:12:49.886Z</time></trkpt><trkpt lat="39.91941033795181" lon="8.514431224376924"><ele>0.0</ele><time>2026-04-26T14:12:50.886Z</time></trkpt><trkpt lat="39.91941057395532" lon="8.514519076103227"><ele>0.0</ele><time>2026-04-26T14:12:51.886Z</time></trkpt><trkpt lat="39.919404553239396" lon="8.514606502432375"><ele>0.0</ele><time>2026-04-26T14:12:52.886Z</time></trkpt><trkpt lat="39.91939295989161" lon="8.514694563773931"><ele>0.0</ele><time>2026-04-26T14:12:53.886Z</time></trkpt><trkpt lat="39.919365418697225" lon="8.514845884060586"><ele>0.0</ele><time>2026-04-26T14:12:55.886Z</time></trkpt><trkpt lat="39.919346821910494" lon="8.514925728641666"><ele>0.0</ele><time>2026-04-26T14:12:56.886Z</time></trkpt><trkpt lat="39.91929921849234" lon="8.515071005985751"><ele>0.0</ele><time>2026-04-26T14:12:58.886Z</time></trkpt><trkpt lat="39.919263168132204" lon="8.515141983940858"><ele>0.0</ele><time>2026-04-26T14:12:59.886Z</time></trkpt><trkpt lat="39.91921702630705" lon="8.51520428504266"><ele>0.0</ele><time>2026-04-26T14:13:00.886Z</time></trkpt><trkpt lat="39.919161970804666" lon="8.515263330542334"><ele>0.0</ele><time>2026-04-26T14:13:01.886Z</time></trkpt><trkpt lat="39.9191068098631" lon="8.515320089865979"><ele>0.0</ele><time>2026-04-26T14:13:02.886Z</time></trkpt><trkpt lat="39.91904867425016" lon="8.515382153873512"><ele>0.0</ele><time>2026-04-26T14:13:03.886Z</time></trkpt><trkpt lat="39.918991998294864" lon="8.515453415544913"><ele>0.0</ele><time>2026-04-26T14:13:04.886Z</time></trkpt><trkpt lat="39.91892811760259" lon="8.515527527586078"><ele>0.16666666666666666</ele><time>2026-04-26T14:13:05.886Z</time></trkpt><trkpt lat="39.91886932792616" lon="8.515596972565799"><ele>0.3333333333333333</ele><time>2026-04-26T14:13:06.886Z</time></trkpt><trkpt lat="39.91881391233866" lon="8.515651402240483"><ele>0.5</ele><time>2026-04-26T14:13:07.886Z</time></trkpt><trkpt lat="39.91875516701722" lon="8.515690925112255"><ele>0.6666666666666666</ele><time>2026-04-26T14:13:08.886Z</time></trkpt><trkpt lat="39.918691140075424" lon="8.515732212369093"><ele>0.8333333333333333</ele><time>2026-04-26T14:13:09.886Z</time></trkpt><trkpt lat="39.918627087672704" lon="8.515762400492653"><ele>1.0</ele><time>2026-04-26T14:13:10.886Z</time></trkpt><trkpt lat="39.918517413131944" lon="8.51581007727114"><ele>0.9999999999999999</ele><time>2026-04-26T14:13:12.886Z</time></trkpt><trkpt lat="39.91844482435291" lon="8.515807466432255"><ele>1.0</ele><time>2026-04-26T14:13:14.887Z</time></trkpt><trkpt lat="39.91842847284528" lon="8.515711728722454"><ele>1.0</ele><time>2026-04-26T14:13:17.887Z</time></trkpt><trkpt lat="39.91847798812187" lon="8.515585449317516"><ele>1.0</ele><time>2026-04-26T14:13:19.887Z</time></trkpt><trkpt lat="39.91850875768726" lon="8.515497689740425"><ele>0.9999999999999999</ele><time>2026-04-26T14:13:20.887Z</time></trkpt><trkpt lat="39.918542635996985" lon="8.51539007372088"><ele>1.0</ele><time>2026-04-26T14:13:21.887Z</time></trkpt><trkpt lat="39.918575803603055" lon="8.51528365968047"><ele>1.2000000000000002</ele><time>2026-04-26T14:13:22.887Z</time></trkpt><trkpt lat="39.918609584265525" lon="8.51517800735592"><ele>1.4000000000000001</ele><time>2026-04-26T14:13:23.887Z</time></trkpt><trkpt lat="39.918646182341696" lon="8.515060739886392"><ele>1.6</ele><time>2026-04-26T14:13:24.887Z</time></trkpt><trkpt lat="39.918689131317954" lon="8.51493075908741"><ele>1.8</ele><time>2026-04-26T14:13:25.887Z</time></trkpt><trkpt lat="39.918734563872334" lon="8.514793710053894"><ele>2.0</ele><time>2026-04-26T14:13:26.887Z</time></trkpt><trkpt lat="39.91877784083186" lon="8.514659377196535"><ele>2.0</ele><time>2026-04-26T14:13:27.887Z</time></trkpt><trkpt lat="39.91881340798262" lon="8.514529290084283"><ele>2.0</ele><time>2026-04-26T14:13:28.887Z</time></trkpt><trkpt lat="39.91883817591479" lon="8.514399656927585"><ele>2.0</ele><time>2026-04-26T14:13:29.887Z</time></trkpt><trkpt lat="39.91885401809591" lon="8.514256544958156"><ele>2.0</ele><time>2026-04-26T14:13:30.887Z</time></trkpt><trkpt lat="39.91885982373192" lon="8.514107901442761"><ele>2.0</ele><time>2026-04-26T14:13:31.887Z</time></trkpt><trkpt lat="39.91884871641992" lon="8.513947809482241"><ele>2.0</ele><time>2026-04-26T14:13:32.887Z</time></trkpt><trkpt lat="39.91882966652463" lon="8.513783056219742"><ele>2.0</ele><time>2026-04-26T14:13:33.887Z</time></trkpt><trkpt lat="39.918810229205164" lon="8.513623588846608"><ele>2.0</ele><time>2026-04-26T14:13:34.887Z</time></trkpt><trkpt lat="39.91878852888545" lon="8.513455182063232"><ele>2.0</ele><time>2026-04-26T14:13:35.887Z</time></trkpt><trkpt lat="39.91876956684736" lon="8.513280995298652"><ele>2.0</ele><time>2026-04-26T14:13:36.887Z</time></trkpt><trkpt lat="39.9187486564068" lon="8.51310058465419"><ele>2.0</ele><time>2026-04-26T14:13:37.887Z</time></trkpt><trkpt lat="39.91873101820057" lon="8.512923033319053"><ele>2.0</ele><time>2026-04-26T14:13:38.887Z</time></trkpt><trkpt lat="39.91871177525913" lon="8.512750288912711"><ele>2.0</ele><time>2026-04-26T14:13:39.887Z</time></trkpt><trkpt lat="39.91869343846098" lon="8.512573716395824"><ele>1.75</ele><time>2026-04-26T14:13:40.887Z</time></trkpt><trkpt lat="39.918670325049796" lon="8.512398379636952"><ele>1.5</ele><time>2026-04-26T14:13:41.887Z</time></trkpt><trkpt lat="39.918652085506864" lon="8.512217025201881"><ele>1.25</ele><time>2026-04-26T14:13:42.887Z</time></trkpt><trkpt lat="39.91863303832834" lon="8.512036936960484"><ele>1.0</ele><time>2026-04-26T14:13:43.887Z</time></trkpt><trkpt lat="39.91861423474699" lon="8.511855612168016"><ele>1.0</ele><time>2026-04-26T14:13:44.887Z</time></trkpt><trkpt lat="39.918593382610126" lon="8.511671677460011"><ele>1.0</ele><time>2026-04-26T14:13:45.887Z</time></trkpt><trkpt lat="39.91857325566616" lon="8.511490429084686"><ele>1.0</ele><time>2026-04-26T14:13:46.887Z</time></trkpt><trkpt lat="39.918554300625686" lon="8.51130855882302"><ele>1.0</ele><time>2026-04-26T14:13:47.887Z</time></trkpt><trkpt lat="39.9185376566084" lon="8.51112456192488"><ele>0.75</ele><time>2026-04-26T14:13:48.887Z</time></trkpt><trkpt lat="39.918517494216516" lon="8.51094263073527"><ele>0.5</ele><time>2026-04-26T14:13:49.887Z</time></trkpt><trkpt lat="39.91849978111361" lon="8.510764105719105"><ele>0.25</ele><time>2026-04-26T14:13:50.887Z</time></trkpt><trkpt lat="39.91847889015759" lon="8.510584910729458"><ele>0.0</ele><time>2026-04-26T14:13:51.887Z</time></trkpt><trkpt lat="39.91845839033832" lon="8.510404524140824"><ele>0.0</ele><time>2026-04-26T14:13:52.887Z</time></trkpt><trkpt lat="39.91843994231368" lon="8.510229298497743"><ele>0.0</ele><time>2026-04-26T14:13:53.887Z</time></trkpt><trkpt lat="39.918423005528126" lon="8.510050621712583"><ele>0.0</ele><time>2026-04-26T14:13:54.887Z</time></trkpt><trkpt lat="39.918407334403355" lon="8.509876646312515"><ele>0.0</ele><time>2026-04-26T14:13:55.887Z</time></trkpt><trkpt lat="39.918392579382804" lon="8.509699106967398"><ele>0.0</ele><time>2026-04-26T14:13:56.887Z</time></trkpt><trkpt lat="39.91838045151108" lon="8.509525569239809"><ele>0.0</ele><time>2026-04-26T14:13:57.887Z</time></trkpt><trkpt lat="39.91837216366057" lon="8.50934760272275"><ele>0.0</ele><time>2026-04-26T14:13:58.887Z</time></trkpt><trkpt lat="39.91836402697474" lon="8.5091775388203"><ele>0.0</ele><time>2026-04-26T14:13:59.887Z</time></trkpt><trkpt lat="39.918349422160844" lon="8.509009744115673"><ele>0.0</ele><time>2026-04-26T14:14:00.886Z</time></trkpt><trkpt lat="39.91832245113299" lon="8.508839522593961"><ele>0.0</ele><time>2026-04-26T14:14:01.886Z</time></trkpt><trkpt lat="39.91828900705066" lon="8.508666299091281"><ele>0.0</ele><time>2026-04-26T14:14:02.886Z</time></trkpt><trkpt lat="39.91825163790484" lon="8.508494499168398"><ele>0.0</ele><time>2026-04-26T14:14:03.886Z</time></trkpt><trkpt lat="39.918213414926534" lon="8.508324066973085"><ele>0.25</ele><time>2026-04-26T14:14:04.886Z</time></trkpt><trkpt lat="39.91817532210916" lon="8.50815223425318"><ele>0.5</ele><time>2026-04-26T14:14:05.886Z</time></trkpt><trkpt lat="39.91813585123114" lon="8.507984240195665"><ele>0.75</ele><time>2026-04-26T14:14:06.886Z</time></trkpt><trkpt lat="39.918096715471755" lon="8.507813070120198"><ele>1.0</ele><time>2026-04-26T14:14:07.886Z</time></trkpt><trkpt lat="39.918058719760666" lon="8.507640249220097"><ele>1.25</ele><time>2026-04-26T14:14:08.886Z</time></trkpt><trkpt lat="39.918019213059345" lon="8.507465844329445"><ele>1.5</ele><time>2026-04-26T14:14:09.886Z</time></trkpt><trkpt lat="39.91798124382934" lon="8.507291007482308"><ele>1.75</ele><time>2026-04-26T14:14:10.886Z</time></trkpt><trkpt lat="39.917943709013834" lon="8.50711668507546"><ele>2.0</ele><time>2026-04-26T14:14:11.886Z</time></trkpt><trkpt lat="39.917906769298526" lon="8.50694254948942"><ele>2.25</ele><time>2026-04-26T14:14:12.886Z</time></trkpt><trkpt lat="39.917866195403015" lon="8.50676820443567"><ele>2.5</ele><time>2026-04-26T14:14:13.886Z</time></trkpt><trkpt lat="39.91782881353614" lon="8.506592890077535"><ele>2.75</ele><time>2026-04-26T14:14:14.886Z</time></trkpt><trkpt lat="39.91778863556957" lon="8.506417549716486"><ele>3.0</ele><time>2026-04-26T14:14:15.886Z</time></trkpt><trkpt lat="39.91774472147884" lon="8.506241487324273"><ele>3.0</ele><time>2026-04-26T14:14:16.886Z</time></trkpt><trkpt lat="39.917697050118875" lon="8.506063879713583"><ele>3.0</ele><time>2026-04-26T14:14:17.886Z</time></trkpt><trkpt lat="39.917644434771624" lon="8.505887212192851"><ele>3.0</ele><time>2026-04-26T14:14:18.886Z</time></trkpt><trkpt lat="39.917583938143004" lon="8.505711314887039"><ele>3.0</ele><time>2026-04-26T14:14:19.886Z</time></trkpt><trkpt lat="39.917519349844696" lon="8.505541225346642"><ele>3.0</ele><time>2026-04-26T14:14:20.886Z</time></trkpt><trkpt lat="39.91744990472745" lon="8.505373058786738"><ele>3.0</ele><time>2026-04-26T14:14:21.886Z</time></trkpt><trkpt lat="39.917376400641885" lon="8.505207538678338"><ele>3.0</ele><time>2026-04-26T14:14:22.886Z</time></trkpt><trkpt lat="39.91729642446106" lon="8.505043891521904"><ele>3.0</ele><time>2026-04-26T14:14:23.886Z</time></trkpt><trkpt lat="39.91721108204636" lon="8.504883134791957"><ele>3.0</ele><time>2026-04-26T14:14:24.886Z</time></trkpt><trkpt lat="39.917121570331496" lon="8.504726676161605"><ele>3.0</ele><time>2026-04-26T14:14:25.886Z</time></trkpt><trkpt lat="39.91702872185962" lon="8.50457607907831"><ele>3.0</ele><time>2026-04-26T14:14:26.886Z</time></trkpt><trkpt lat="39.9169381411589" lon="8.504422893027026"><ele>3.0</ele><time>2026-04-26T14:14:27.886Z</time></trkpt><trkpt lat="39.91684452316031" lon="8.504270047863127"><ele>3.0</ele><time>2026-04-26T14:14:28.886Z</time></trkpt><trkpt lat="39.91675289646103" lon="8.504117870770214"><ele>3.0</ele><time>2026-04-26T14:14:29.886Z</time></trkpt><trkpt lat="39.916661095887605" lon="8.503969083510915"><ele>3.0</ele><time>2026-04-26T14:14:30.886Z</time></trkpt><trkpt lat="39.91656947733903" lon="8.50381809368213"><ele>3.0</ele><time>2026-04-26T14:14:31.886Z</time></trkpt><trkpt lat="39.91648087098878" lon="8.503660773144313"><ele>3.0</ele><time>2026-04-26T14:14:32.886Z</time></trkpt><trkpt lat="39.916395229661866" lon="8.503498058179852"><ele>3.0</ele><time>2026-04-26T14:14:33.886Z</time></trkpt><trkpt lat="39.916317265554554" lon="8.503328387505885"><ele>3.0</ele><time>2026-04-26T14:14:34.886Z</time></trkpt><trkpt lat="39.91624635499294" lon="8.50314937890098"><ele>3.0</ele><time>2026-04-26T14:14:35.886Z</time></trkpt><trkpt lat="39.916183908219764" lon="8.502965008014725"><ele>3.0</ele><time>2026-04-26T14:14:36.886Z</time></trkpt><trkpt lat="39.916130855780864" lon="8.502774021592407"><ele>3.0</ele><time>2026-04-26T14:14:37.886Z</time></trkpt><trkpt lat="39.91609030629924" lon="8.50258040677766"><ele>3.0</ele><time>2026-04-26T14:14:38.886Z</time></trkpt><trkpt lat="39.91605812618999" lon="8.502384809574995"><ele>3.0</ele><time>2026-04-26T14:14:39.886Z</time></trkpt><trkpt lat="39.916032948644336" lon="8.502189159723894"><ele>3.0</ele><time>2026-04-26T14:14:40.886Z</time></trkpt><trkpt lat="39.916015936637756" lon="8.50199067970701"><ele>3.0</ele><time>2026-04-26T14:14:41.886Z</time></trkpt><trkpt lat="39.91601018687021" lon="8.501793923823"><ele>3.0</ele><time>2026-04-26T14:14:42.886Z</time></trkpt><trkpt lat="39.91601049926395" lon="8.501594184483091"><ele>3.0</ele><time>2026-04-26T14:14:43.886Z</time></trkpt><trkpt lat="39.916020439493565" lon="8.501393452758554"><ele>3.0</ele><time>2026-04-26T14:14:44.886Z</time></trkpt><trkpt lat="39.916038330943515" lon="8.501193432471386"><ele>3.0</ele><time>2026-04-26T14:14:45.886Z</time></trkpt><trkpt lat="39.9160630621833" lon="8.50099392380207"><ele>3.0</ele><time>2026-04-26T14:14:46.887Z</time></trkpt><trkpt lat="39.91609892249308" lon="8.500798878556985"><ele>3.0</ele><time>2026-04-26T14:14:47.887Z</time></trkpt><trkpt lat="39.91614462802837" lon="8.500603634656171"><ele>3.0</ele><time>2026-04-26T14:14:48.887Z</time></trkpt><trkpt lat="39.916196058334364" lon="8.50041206046967"><ele>3.0</ele><time>2026-04-26T14:14:49.887Z</time></trkpt><trkpt lat="39.91625740417405" lon="8.500228842602358"><ele>2.6666666666666665</ele><time>2026-04-26T14:14:50.887Z</time></trkpt><trkpt lat="39.91632832514708" lon="8.500047560258484"><ele>2.333333333333333</ele><time>2026-04-26T14:14:51.887Z</time></trkpt><trkpt lat="39.916408432043745" lon="8.499875968564194"><ele>2.0</ele><time>2026-04-26T14:14:52.887Z</time></trkpt><trkpt lat="39.916492332239045" lon="8.499706950821077"><ele>1.6666666666666665</ele><time>2026-04-26T14:14:53.887Z</time></trkpt><trkpt lat="39.91657883970614" lon="8.499544414350726"><ele>1.3333333333333333</ele><time>2026-04-26T14:14:54.887Z</time></trkpt><trkpt lat="39.916676893447736" lon="8.499395317674798"><ele>1.0</ele><time>2026-04-26T14:14:55.887Z</time></trkpt><trkpt lat="39.9167724586739" lon="8.499245708874515"><ele>0.6666666666666666</ele><time>2026-04-26T14:14:56.887Z</time></trkpt><trkpt lat="39.91687076438594" lon="8.49909408814583"><ele>0.3333333333333333</ele><time>2026-04-26T14:14:57.887Z</time></trkpt><trkpt lat="39.91696921527197" lon="8.49894307644195"><ele>0.0</ele><time>2026-04-26T14:14:58.887Z</time></trkpt><trkpt lat="39.91706513563819" lon="8.49879180094849"><ele>0.0</ele><time>2026-04-26T14:14:59.887Z</time></trkpt><trkpt lat="39.917162740316776" lon="8.498638217520412"><ele>0.0</ele><time>2026-04-26T14:15:00.887Z</time></trkpt><trkpt lat="39.91725895559218" lon="8.498482106089801"><ele>0.0</ele><time>2026-04-26T14:15:01.887Z</time></trkpt><trkpt lat="39.917357336657766" lon="8.49832473801373"><ele>0.0</ele><time>2026-04-26T14:15:02.887Z</time></trkpt><trkpt lat="39.917455369582804" lon="8.498169241330327"><ele>0.0</ele><time>2026-04-26T14:15:03.887Z</time></trkpt><trkpt lat="39.91755376456831" lon="8.498012544367334"><ele>0.0</ele><time>2026-04-26T14:15:04.887Z</time></trkpt><trkpt lat="39.917652589943344" lon="8.497856007357752"><ele>0.25</ele><time>2026-04-26T14:15:05.887Z</time></trkpt><trkpt lat="39.91774469736497" lon="8.497704021796315"><ele>0.5</ele><time>2026-04-26T14:15:06.887Z</time></trkpt><trkpt lat="39.917837311695095" lon="8.497556100335387"><ele>0.75</ele><time>2026-04-26T14:15:07.887Z</time></trkpt><trkpt lat="39.917929595574805" lon="8.497408159791206"><ele>1.0</ele><time>2026-04-26T14:15:08.887Z</time></trkpt><trkpt lat="39.918023947053875" lon="8.49725877443846"><ele>1.0</ele><time>2026-04-26T14:15:09.887Z</time></trkpt><trkpt lat="39.91811494785452" lon="8.497104171399334"><ele>1.0</ele><time>2026-04-26T14:15:10.887Z</time></trkpt><trkpt lat="39.91820176592288" lon="8.496945634138527"><ele>1.0</ele><time>2026-04-26T14:15:11.887Z</time></trkpt><trkpt lat="39.91828303783222" lon="8.496780281262982"><ele>1.0</ele><time>2026-04-26T14:15:12.887Z</time></trkpt><trkpt lat="39.91836146536061" lon="8.49661204313929"><ele>1.6666666666666665</ele><time>2026-04-26T14:15:13.887Z</time></trkpt><trkpt lat="39.91842861465919" lon="8.496434513396482"><ele>2.3333333333333335</ele><time>2026-04-26T14:15:14.887Z</time></trkpt><trkpt lat="39.91849091511075" lon="8.496249911114647"><ele>3.0</ele><time>2026-04-26T14:15:15.887Z</time></trkpt><trkpt lat="39.91854592181487" lon="8.496062979158813"><ele>3.0</ele><time>2026-04-26T14:15:16.887Z</time></trkpt><trkpt lat="39.918592445812635" lon="8.495866494635544"><ele>3.0</ele><time>2026-04-26T14:15:17.887Z</time></trkpt><trkpt lat="39.918633742028106" lon="8.49567015277023"><ele>3.0</ele><time>2026-04-26T14:15:18.887Z</time></trkpt><trkpt lat="39.91866177734669" lon="8.495469987915554"><ele>2.6666666666666665</ele><time>2026-04-26T14:15:19.887Z</time></trkpt><trkpt lat="39.91867967843246" lon="8.49526760455391"><ele>2.333333333333333</ele><time>2026-04-26T14:15:20.887Z</time></trkpt><trkpt lat="39.918690163815015" lon="8.495068371916638"><ele>2.0</ele><time>2026-04-26T14:15:21.887Z</time></trkpt><trkpt lat="39.9186903522908" lon="8.494865199241659"><ele>2.0</ele><time>2026-04-26T14:15:22.887Z</time></trkpt><trkpt lat="39.91868611167028" lon="8.494665354875456"><ele>2.0</ele><time>2026-04-26T14:15:23.887Z</time></trkpt><trkpt lat="39.918671376610945" lon="8.49446639345925"><ele>2.0</ele><time>2026-04-26T14:15:24.887Z</time></trkpt><trkpt lat="39.9186531002254" lon="8.494268239963336"><ele>2.0</ele><time>2026-04-26T14:15:25.887Z</time></trkpt><trkpt lat="39.91862082441371" lon="8.494071041758545"><ele>2.0</ele><time>2026-04-26T14:15:26.887Z</time></trkpt><trkpt lat="39.91857882424304" lon="8.493873887189698"><ele>2.0</ele><time>2026-04-26T14:15:27.887Z</time></trkpt><trkpt lat="39.918530406299055" lon="8.493681722290317"><ele>1.6666666666666665</ele><time>2026-04-26T14:15:28.887Z</time></trkpt><trkpt lat="39.91847257415097" lon="8.493485646642212"><ele>1.3333333333333333</ele><time>2026-04-26T14:15:29.887Z</time></trkpt><trkpt lat="39.91840454242872" lon="8.493296824820439"><ele>1.0</ele><time>2026-04-26T14:15:30.887Z</time></trkpt><trkpt lat="39.918335151928005" lon="8.493124758843498"><ele>1.0</ele><time>2026-04-26T14:15:31.887Z</time></trkpt><trkpt lat="39.91826321276005" lon="8.492951413731548"><ele>1.0</ele><time>2026-04-26T14:15:32.887Z</time></trkpt><trkpt lat="39.91818865830478" lon="8.492762227628582"><ele>1.0</ele><time>2026-04-26T14:15:33.887Z</time></trkpt><trkpt lat="39.91811696670918" lon="8.492570679016994"><ele>1.0</ele><time>2026-04-26T14:15:34.887Z</time></trkpt><trkpt lat="39.91804665056733" lon="8.492371864320692"><ele>1.0</ele><time>2026-04-26T14:15:35.887Z</time></trkpt><trkpt lat="39.91797508951059" lon="8.492174980339579"><ele>1.0</ele><time>2026-04-26T14:15:36.887Z</time></trkpt><trkpt lat="39.917905678390056" lon="8.491989422826613"><ele>1.3333333333333333</ele><time>2026-04-26T14:15:37.887Z</time></trkpt><trkpt lat="39.91783595205277" lon="8.49180571993557"><ele>1.6666666666666665</ele><time>2026-04-26T14:15:38.887Z</time></trkpt><trkpt lat="39.91776727068113" lon="8.491618377314705"><ele>2.0</ele><time>2026-04-26T14:15:39.887Z</time></trkpt><trkpt lat="39.917702024129674" lon="8.491426892250706"><ele>2.0</ele><time>2026-04-26T14:15:40.887Z</time></trkpt><trkpt lat="39.91764154336023" lon="8.491234479280571"><ele>2.0</ele><time>2026-04-26T14:15:41.887Z</time></trkpt><trkpt lat="39.91758283074139" lon="8.49103402146261"><ele>2.0</ele><time>2026-04-26T14:15:42.887Z</time></trkpt><trkpt lat="39.917528493099994" lon="8.490834073911255"><ele>1.6666666666666665</ele><time>2026-04-26T14:15:43.887Z</time></trkpt><trkpt lat="39.91748791688129" lon="8.49062055395267"><ele>1.3333333333333333</ele><time>2026-04-26T14:15:44.887Z</time></trkpt><trkpt lat="39.917451230588846" lon="8.49041204951761"><ele>1.0</ele><time>2026-04-26T14:15:45.887Z</time></trkpt><trkpt lat="39.917432788042476" lon="8.490200784568634"><ele>1.0</ele><time>2026-04-26T14:15:46.887Z</time></trkpt><trkpt lat="39.917404809195276" lon="8.489991302938446"><ele>1.0</ele><time>2026-04-26T14:15:47.887Z</time></trkpt><trkpt lat="39.91737605870553" lon="8.48977604389806"><ele>1.0</ele><time>2026-04-26T14:15:48.887Z</time></trkpt><trkpt lat="39.91734796465713" lon="8.489565699728406"><ele>1.0</ele><time>2026-04-26T14:15:49.887Z</time></trkpt><trkpt lat="39.91731954664042" lon="8.489352929964026"><ele>1.0</ele><time>2026-04-26T14:15:50.887Z</time></trkpt><trkpt lat="39.917290757390624" lon="8.48913738071075"><ele>1.0</ele><time>2026-04-26T14:15:51.887Z</time></trkpt><trkpt lat="39.91726192782303" lon="8.48892152962446"><ele>1.0</ele><time>2026-04-26T14:15:52.887Z</time></trkpt><trkpt lat="39.917232888312626" lon="8.488704106634353"><ele>1.0</ele><time>2026-04-26T14:15:53.887Z</time></trkpt><trkpt lat="39.91720422364479" lon="8.488489490156757"><ele>1.0</ele><time>2026-04-26T14:15:54.887Z</time></trkpt><trkpt lat="39.91715993024748" lon="8.488282045612648"><ele>1.0</ele><time>2026-04-26T14:15:55.887Z</time></trkpt><trkpt lat="39.91713455116652" lon="8.48806725141555"><ele>1.0</ele><time>2026-04-26T14:15:56.887Z</time></trkpt><trkpt lat="39.91710786077369" lon="8.487852188136628"><ele>1.0</ele><time>2026-04-26T14:15:57.887Z</time></trkpt><trkpt lat="39.91708054241854" lon="8.487642467543665"><ele>1.0</ele><time>2026-04-26T14:15:58.887Z</time></trkpt><trkpt lat="39.91705224324787" lon="8.487434549183657"><ele>1.0</ele><time>2026-04-26T14:15:59.887Z</time></trkpt><trkpt lat="39.917023709849296" lon="8.487219921332711"><ele>1.0</ele><time>2026-04-26T14:16:00.887Z</time></trkpt><trkpt lat="39.91699583708576" lon="8.487006609760934"><ele>1.0</ele><time>2026-04-26T14:16:01.887Z</time></trkpt><trkpt lat="39.916968780660575" lon="8.486796939895536"><ele>1.0</ele><time>2026-04-26T14:16:02.887Z</time></trkpt><trkpt lat="39.9169449659094" lon="8.486586246914012"><ele>1.0</ele><time>2026-04-26T14:16:03.887Z</time></trkpt><trkpt lat="39.916914409976094" lon="8.486377129832894"><ele>1.0</ele><time>2026-04-26T14:16:04.887Z</time></trkpt><trkpt lat="39.91688434796313" lon="8.486165721512"><ele>1.0</ele><time>2026-04-26T14:16:05.887Z</time></trkpt><trkpt lat="39.91685464575189" lon="8.485957018323315"><ele>1.0</ele><time>2026-04-26T14:16:06.886Z</time></trkpt><trkpt lat="39.916823311140064" lon="8.48574557843674"><ele>1.0</ele><time>2026-04-26T14:16:07.886Z</time></trkpt><trkpt lat="39.916795625880056" lon="8.485535214392565"><ele>1.0</ele><time>2026-04-26T14:16:08.886Z</time></trkpt><trkpt lat="39.916767692575" lon="8.485321113110274"><ele>1.0</ele><time>2026-04-26T14:16:09.885Z</time></trkpt><trkpt lat="39.916739321793955" lon="8.48510509734425"><ele>1.3333333333333333</ele><time>2026-04-26T14:16:10.885Z</time></trkpt><trkpt lat="39.91671225968434" lon="8.484887849105471"><ele>1.6666666666666665</ele><time>2026-04-26T14:16:11.885Z</time></trkpt><trkpt lat="39.91668403286878" lon="8.484672229062788"><ele>2.0</ele><time>2026-04-26T14:16:12.886Z</time></trkpt><trkpt lat="39.91665612315363" lon="8.484459511089339"><ele>2.0</ele><time>2026-04-26T14:16:13.886Z</time></trkpt><trkpt lat="39.9166261597709" lon="8.484248181579234"><ele>2.0</ele><time>2026-04-26T14:16:14.886Z</time></trkpt><trkpt lat="39.91659842615866" lon="8.484035333773434"><ele>2.0</ele><time>2026-04-26T14:16:15.886Z</time></trkpt><trkpt lat="39.916566170115495" lon="8.483822673101377"><ele>2.0</ele><time>2026-04-26T14:16:16.885Z</time></trkpt><trkpt lat="39.91653784979263" lon="8.483610604699297"><ele>2.0</ele><time>2026-04-26T14:16:17.885Z</time></trkpt><trkpt lat="39.916511893073235" lon="8.483401633846215"><ele>2.0</ele><time>2026-04-26T14:16:18.886Z</time></trkpt><trkpt lat="39.91648561852367" lon="8.483192272685292"><ele>2.0</ele><time>2026-04-26T14:16:19.885Z</time></trkpt><trkpt lat="39.916451474516954" lon="8.482976153058619"><ele>2.0</ele><time>2026-04-26T14:16:20.885Z</time></trkpt><trkpt lat="39.916439497296544" lon="8.482760236746945"><ele>2.0</ele><time>2026-04-26T14:16:21.885Z</time></trkpt><trkpt lat="39.91639712244865" lon="8.482549770693486"><ele>2.0</ele><time>2026-04-26T14:16:22.885Z</time></trkpt><trkpt lat="39.91637085194421" lon="8.482338822457972"><ele>2.0</ele><time>2026-04-26T14:16:23.885Z</time></trkpt><trkpt lat="39.91634620228988" lon="8.482137587693286"><ele>2.0</ele><time>2026-04-26T14:16:24.885Z</time></trkpt><trkpt lat="39.91632013298268" lon="8.481927757540971"><ele>2.0</ele><time>2026-04-26T14:16:25.885Z</time></trkpt><trkpt lat="39.91629595587168" lon="8.481726637858076"><ele>2.0</ele><time>2026-04-26T14:16:26.886Z</time></trkpt><trkpt lat="39.91627617787292" lon="8.4815215125453"><ele>2.0</ele><time>2026-04-26T14:16:27.886Z</time></trkpt><trkpt lat="39.916260284254776" lon="8.481317858206351"><ele>2.0</ele><time>2026-04-26T14:16:28.886Z</time></trkpt><trkpt lat="39.916258678421514" lon="8.481127948323946"><ele>2.0</ele><time>2026-04-26T14:16:29.886Z</time></trkpt><trkpt lat="39.91626302426991" lon="8.480922505459416"><ele>2.0</ele><time>2026-04-26T14:16:30.886Z</time></trkpt><trkpt lat="39.9162801572152" lon="8.480729026568078"><ele>2.0</ele><time>2026-04-26T14:16:31.886Z</time></trkpt><trkpt lat="39.91629512974816" lon="8.480524666279631"><ele>2.0</ele><time>2026-04-26T14:16:32.886Z</time></trkpt><trkpt lat="39.91631203896825" lon="8.48032077479381"><ele>2.0</ele><time>2026-04-26T14:16:33.886Z</time></trkpt><trkpt lat="39.91632827358272" lon="8.480119131951382"><ele>2.0</ele><time>2026-04-26T14:16:34.886Z</time></trkpt><trkpt lat="39.91634430404791" lon="8.479912280518155"><ele>2.0</ele><time>2026-04-26T14:16:35.886Z</time></trkpt><trkpt lat="39.916362435352085" lon="8.47969280804591"><ele>2.0</ele><time>2026-04-26T14:16:36.886Z</time></trkpt><trkpt lat="39.91637959464038" lon="8.479473891207638"><ele>2.0</ele><time>2026-04-26T14:16:37.886Z</time></trkpt><trkpt lat="39.91639605767846" lon="8.479259305793283"><ele>2.0</ele><time>2026-04-26T14:16:38.886Z</time></trkpt><trkpt lat="39.91641060044932" lon="8.479054460848092"><ele>2.0</ele><time>2026-04-26T14:16:39.886Z</time></trkpt><trkpt lat="39.916424150366716" lon="8.478851036638638"><ele>2.0</ele><time>2026-04-26T14:16:40.886Z</time></trkpt><trkpt lat="39.91644118253915" lon="8.478645975356205"><ele>2.0</ele><time>2026-04-26T14:16:41.886Z</time></trkpt><trkpt lat="39.91646004710276" lon="8.478436247979642"><ele>2.0</ele><time>2026-04-26T14:16:42.886Z</time></trkpt><trkpt lat="39.91648023954287" lon="8.478229329906265"><ele>2.0</ele><time>2026-04-26T14:16:43.886Z</time></trkpt><trkpt lat="39.91649888355613" lon="8.478023057800034"><ele>2.0</ele><time>2026-04-26T14:16:44.886Z</time></trkpt><trkpt lat="39.916513420783374" lon="8.477812155598517"><ele>2.0</ele><time>2026-04-26T14:16:45.886Z</time></trkpt><trkpt lat="39.91652914793743" lon="8.477602507171646"><ele>2.333333333333333</ele><time>2026-04-26T14:16:46.886Z</time></trkpt><trkpt lat="39.91654295150313" lon="8.477384771183164"><ele>2.6666666666666665</ele><time>2026-04-26T14:16:47.886Z</time></trkpt><trkpt lat="39.91655911780206" lon="8.477169456490236"><ele>3.0</ele><time>2026-04-26T14:16:48.886Z</time></trkpt><trkpt lat="39.91657506140232" lon="8.476949647347475"><ele>3.0</ele><time>2026-04-26T14:16:49.886Z</time></trkpt><trkpt lat="39.916592519217495" lon="8.476728082925046"><ele>3.0</ele><time>2026-04-26T14:16:50.886Z</time></trkpt><trkpt lat="39.91660705194835" lon="8.476502596051397"><ele>3.0</ele><time>2026-04-26T14:16:51.886Z</time></trkpt><trkpt lat="39.91662200401876" lon="8.476283273668393"><ele>3.0</ele><time>2026-04-26T14:16:52.886Z</time></trkpt><trkpt lat="39.916641788682284" lon="8.476063418655974"><ele>3.0</ele><time>2026-04-26T14:16:53.886Z</time></trkpt><trkpt lat="39.91665850704809" lon="8.475842592906934"><ele>3.0</ele><time>2026-04-26T14:16:54.886Z</time></trkpt><trkpt lat="39.91667927097571" lon="8.475620283578433"><ele>2.6666666666666665</ele><time>2026-04-26T14:16:55.886Z</time></trkpt><trkpt lat="39.91669410239064" lon="8.475400477154292"><ele>2.333333333333333</ele><time>2026-04-26T14:16:56.886Z</time></trkpt><trkpt lat="39.916714644060754" lon="8.475189896878181"><ele>2.0</ele><time>2026-04-26T14:16:57.886Z</time></trkpt><trkpt lat="39.91673458517842" lon="8.4749931952902"><ele>2.0</ele><time>2026-04-26T14:16:58.886Z</time></trkpt><trkpt lat="39.9167461283371" lon="8.474796124704978"><ele>2.0</ele><time>2026-04-26T14:16:59.886Z</time></trkpt><trkpt lat="39.91675214165328" lon="8.474604634547727"><ele>2.0</ele><time>2026-04-26T14:17:00.886Z</time></trkpt><trkpt lat="39.91674798516777" lon="8.474407769824396"><ele>2.0</ele><time>2026-04-26T14:17:01.886Z</time></trkpt><trkpt lat="39.91673599202363" lon="8.47420607653217"><ele>2.0</ele><time>2026-04-26T14:17:02.886Z</time></trkpt><trkpt lat="39.91671488275572" lon="8.474001044362941"><ele>2.0</ele><time>2026-04-26T14:17:03.886Z</time></trkpt><trkpt lat="39.91669167462389" lon="8.473793194308074"><ele>2.0</ele><time>2026-04-26T14:17:04.886Z</time></trkpt><trkpt lat="39.91667369478065" lon="8.47358748511948"><ele>2.0</ele><time>2026-04-26T14:17:05.886Z</time></trkpt><trkpt lat="39.91665526489754" lon="8.47338652858377"><ele>2.0</ele><time>2026-04-26T14:17:06.886Z</time></trkpt><trkpt lat="39.91663430315578" lon="8.47317185112914"><ele>2.0</ele><time>2026-04-26T14:17:07.886Z</time></trkpt><trkpt lat="39.91661265919125" lon="8.4729473554521"><ele>2.0</ele><time>2026-04-26T14:17:08.886Z</time></trkpt><trkpt lat="39.9165875229083" lon="8.472727943076995"><ele>2.0</ele><time>2026-04-26T14:17:09.886Z</time></trkpt><trkpt lat="39.91655960491889" lon="8.472513353574053"><ele>2.0</ele><time>2026-04-26T14:17:10.886Z</time></trkpt><trkpt lat="39.91653501014695" lon="8.472303105539156"><ele>2.0</ele><time>2026-04-26T14:17:11.886Z</time></trkpt><trkpt lat="39.91650511675821" lon="8.472089230647171"><ele>2.0</ele><time>2026-04-26T14:17:12.886Z</time></trkpt><trkpt lat="39.916481739990665" lon="8.471883457305198"><ele>2.0</ele><time>2026-04-26T14:17:13.886Z</time></trkpt><trkpt lat="39.91645633838885" lon="8.471671437506958"><ele>2.0</ele><time>2026-04-26T14:17:14.886Z</time></trkpt><trkpt lat="39.91643208203125" lon="8.471462238955532"><ele>2.0</ele><time>2026-04-26T14:17:15.886Z</time></trkpt><trkpt lat="39.9164246388437" lon="8.471249844199386"><ele>2.0</ele><time>2026-04-26T14:17:16.886Z</time></trkpt><trkpt lat="39.916388518745485" lon="8.471045116310124"><ele>2.0</ele><time>2026-04-26T14:17:17.886Z</time></trkpt><trkpt lat="39.91636239531923" lon="8.470831429679851"><ele>2.0</ele><time>2026-04-26T14:17:18.886Z</time></trkpt><trkpt lat="39.916339695859484" lon="8.470618248745247"><ele>2.0</ele><time>2026-04-26T14:17:19.886Z</time></trkpt><trkpt lat="39.91633186734697" lon="8.470406360930568"><ele>2.0</ele><time>2026-04-26T14:17:20.886Z</time></trkpt><trkpt lat="39.916307883648514" lon="8.470189424943493"><ele>2.0</ele><time>2026-04-26T14:17:21.886Z</time></trkpt><trkpt lat="39.91628272612612" lon="8.469976967887291"><ele>2.0</ele><time>2026-04-26T14:17:22.886Z</time></trkpt><trkpt lat="39.91625518485679" lon="8.469763335152935"><ele>2.0</ele><time>2026-04-26T14:17:23.886Z</time></trkpt><trkpt lat="39.91622958041074" lon="8.46954958965369"><ele>2.0</ele><time>2026-04-26T14:17:24.886Z</time></trkpt><trkpt lat="39.91620731510227" lon="8.469337624731292"><ele>2.0</ele><time>2026-04-26T14:17:25.886Z</time></trkpt><trkpt lat="39.91618476892293" lon="8.469126023394436"><ele>2.0</ele><time>2026-04-26T14:17:26.886Z</time></trkpt><trkpt lat="39.91616265475165" lon="8.468915676334005"><ele>2.0</ele><time>2026-04-26T14:17:27.886Z</time></trkpt><trkpt lat="39.916138747493925" lon="8.468697742608397"><ele>2.0</ele><time>2026-04-26T14:17:28.886Z</time></trkpt><trkpt lat="39.916113550371655" lon="8.46848288606919"><ele>2.0</ele><time>2026-04-26T14:17:29.886Z</time></trkpt><trkpt lat="39.9160867695311" lon="8.468270358368626"><ele>2.0</ele><time>2026-04-26T14:17:30.886Z</time></trkpt><trkpt lat="39.91606215967996" lon="8.468061532354476"><ele>2.333333333333333</ele><time>2026-04-26T14:17:31.886Z</time></trkpt><trkpt lat="39.91603910086209" lon="8.467852023295434"><ele>2.6666666666666665</ele><time>2026-04-26T14:17:32.886Z</time></trkpt><trkpt lat="39.91601417414544" lon="8.467643248365272"><ele>3.0</ele><time>2026-04-26T14:17:33.886Z</time></trkpt><trkpt lat="39.915991368430724" lon="8.467433757422212"><ele>3.0</ele><time>2026-04-26T14:17:34.886Z</time></trkpt><trkpt lat="39.91596896054328" lon="8.467226583470074"><ele>3.0</ele><time>2026-04-26T14:17:35.886Z</time></trkpt><trkpt lat="39.91594717978236" lon="8.46701791835333"><ele>3.0</ele><time>2026-04-26T14:17:36.886Z</time></trkpt><trkpt lat="39.915926145990035" lon="8.466811629875286"><ele>3.0</ele><time>2026-04-26T14:17:37.886Z</time></trkpt><trkpt lat="39.915904911484766" lon="8.466605974047031"><ele>3.0</ele><time>2026-04-26T14:17:38.886Z</time></trkpt><trkpt lat="39.91588669984818" lon="8.4664056532427"><ele>3.0</ele><time>2026-04-26T14:17:39.886Z</time></trkpt><trkpt lat="39.91586369165955" lon="8.466205631896303"><ele>3.0</ele><time>2026-04-26T14:17:40.886Z</time></trkpt><trkpt lat="39.91584513657228" lon="8.466007738121093"><ele>3.0</ele><time>2026-04-26T14:17:41.886Z</time></trkpt><trkpt lat="39.91583178599114" lon="8.465806457288794"><ele>3.0</ele><time>2026-04-26T14:17:42.886Z</time></trkpt><trkpt lat="39.91582615887923" lon="8.465608854198909"><ele>2.6666666666666665</ele><time>2026-04-26T14:17:43.886Z</time></trkpt><trkpt lat="39.915821663629295" lon="8.465403360529239"><ele>2.333333333333333</ele><time>2026-04-26T14:17:44.886Z</time></trkpt><trkpt lat="39.915817558866856" lon="8.465191587391757"><ele>2.0</ele><time>2026-04-26T14:17:45.886Z</time></trkpt><trkpt lat="39.91581886639811" lon="8.46497980251177"><ele>2.0</ele><time>2026-04-26T14:17:46.886Z</time></trkpt><trkpt lat="39.91581331716074" lon="8.464758927499656"><ele>2.0</ele><time>2026-04-26T14:17:47.886Z</time></trkpt><trkpt lat="39.915812211512765" lon="8.464532052107787"><ele>2.0</ele><time>2026-04-26T14:17:48.886Z</time></trkpt><trkpt lat="39.91581080422471" lon="8.464311200355922"><ele>2.333333333333333</ele><time>2026-04-26T14:17:49.886Z</time></trkpt><trkpt lat="39.91582682755707" lon="8.464087534789233"><ele>2.6666666666666665</ele><time>2026-04-26T14:17:50.886Z</time></trkpt><trkpt lat="39.915826827554525" lon="8.463859155381133"><ele>3.0</ele><time>2026-04-26T14:17:51.886Z</time></trkpt><trkpt lat="39.91582682755787" lon="8.463640997426552"><ele>3.0</ele><time>2026-04-26T14:17:52.886Z</time></trkpt><trkpt lat="39.91582682755921" lon="8.463422095294673"><ele>3.0</ele><time>2026-04-26T14:17:53.886Z</time></trkpt><trkpt lat="39.915826827559904" lon="8.463204547859156"><ele>3.0</ele><time>2026-04-26T14:17:54.886Z</time></trkpt><trkpt lat="39.915826827558156" lon="8.462982514207779"><ele>3.666666666666667</ele><time>2026-04-26T14:17:55.886Z</time></trkpt><trkpt lat="39.91582682756089" lon="8.462761750999782"><ele>4.333333333333334</ele><time>2026-04-26T14:17:56.886Z</time></trkpt><trkpt lat="39.91582682755956" lon="8.46253737007846"><ele>5.0</ele><time>2026-04-26T14:17:57.886Z</time></trkpt><trkpt lat="39.91582682756026" lon="8.462310447994422"><ele>4.666666666666667</ele><time>2026-04-26T14:17:58.886Z</time></trkpt><trkpt lat="39.91582682755983" lon="8.46207814075725"><ele>4.333333333333333</ele><time>2026-04-26T14:17:59.886Z</time></trkpt><trkpt lat="39.91583014544198" lon="8.461852973575326"><ele>4.0</ele><time>2026-04-26T14:18:00.886Z</time></trkpt><trkpt lat="39.91582798875584" lon="8.46161633503463"><ele>4.0</ele><time>2026-04-26T14:18:01.886Z</time></trkpt><trkpt lat="39.91582777723842" lon="8.461387502298896"><ele>4.0</ele><time>2026-04-26T14:18:02.886Z</time></trkpt><trkpt lat="39.91582790693036" lon="8.461158127118864"><ele>4.0</ele><time>2026-04-26T14:18:03.886Z</time></trkpt><trkpt lat="39.91582932532858" lon="8.460925077785728"><ele>4.0</ele><time>2026-04-26T14:18:04.886Z</time></trkpt><trkpt lat="39.915828631942766" lon="8.460701875649752"><ele>4.0</ele><time>2026-04-26T14:18:05.886Z</time></trkpt><trkpt lat="39.91582953335921" lon="8.460474614283292"><ele>4.0</ele><time>2026-04-26T14:18:06.886Z</time></trkpt><trkpt lat="39.91583059839094" lon="8.460245770845102"><ele>3.6666666666666665</ele><time>2026-04-26T14:18:07.887Z</time></trkpt><trkpt lat="39.915830314205095" lon="8.460019401558027"><ele>3.333333333333333</ele><time>2026-04-26T14:18:08.887Z</time></trkpt><trkpt lat="39.915832599434516" lon="8.459796471642807"><ele>3.0</ele><time>2026-04-26T14:18:09.887Z</time></trkpt><trkpt lat="39.91583234993694" lon="8.459563174941257"><ele>2.6666666666666665</ele><time>2026-04-26T14:18:10.887Z</time></trkpt><trkpt lat="39.915829084358535" lon="8.459327528616528"><ele>2.333333333333333</ele><time>2026-04-26T14:18:11.887Z</time></trkpt><trkpt lat="39.915828067125396" lon="8.459095518214609"><ele>2.0</ele><time>2026-04-26T14:18:12.886Z</time></trkpt><trkpt lat="39.91582599036964" lon="8.458862349480919"><ele>2.333333333333333</ele><time>2026-04-26T14:18:13.886Z</time></trkpt><trkpt lat="39.91582969670952" lon="8.458635834542923"><ele>2.6666666666666665</ele><time>2026-04-26T14:18:14.886Z</time></trkpt><trkpt lat="39.91582608196957" lon="8.458405053618584"><ele>3.0</ele><time>2026-04-26T14:18:15.886Z</time></trkpt><trkpt lat="39.91582610716215" lon="8.458176418073563"><ele>3.666666666666667</ele><time>2026-04-26T14:18:16.886Z</time></trkpt><trkpt lat="39.91582843802195" lon="8.457946895149727"><ele>4.333333333333334</ele><time>2026-04-26T14:18:17.886Z</time></trkpt><trkpt lat="39.91582823724525" lon="8.457718054831178"><ele>5.0</ele><time>2026-04-26T14:18:18.886Z</time></trkpt><trkpt lat="39.915822294499215" lon="8.457482747484171"><ele>5.0</ele><time>2026-04-26T14:18:19.885Z</time></trkpt><trkpt lat="39.915820177651" lon="8.457250278517499"><ele>5.0</ele><time>2026-04-26T14:18:20.885Z</time></trkpt><trkpt lat="39.915819871345" lon="8.457018970254593"><ele>5.0</ele><time>2026-04-26T14:18:21.885Z</time></trkpt><trkpt lat="39.91582416855349" lon="8.456793703346396"><ele>4.666666666666667</ele><time>2026-04-26T14:18:22.886Z</time></trkpt><trkpt lat="39.91582225868901" lon="8.45657409025444"><ele>4.333333333333333</ele><time>2026-04-26T14:18:23.886Z</time></trkpt><trkpt lat="39.91581942576529" lon="8.456351253418593"><ele>4.0</ele><time>2026-04-26T14:18:24.886Z</time></trkpt><trkpt lat="39.91581213359319" lon="8.456123845199729"><ele>3.6666666666666665</ele><time>2026-04-26T14:18:25.886Z</time></trkpt><trkpt lat="39.91581138593596" lon="8.45589985446196"><ele>3.333333333333333</ele><time>2026-04-26T14:18:26.886Z</time></trkpt><trkpt lat="39.915814048066615" lon="8.455674515541116"><ele>3.0</ele><time>2026-04-26T14:18:27.886Z</time></trkpt><trkpt lat="39.91581617914317" lon="8.455456283111308"><ele>3.333333333333333</ele><time>2026-04-26T14:18:28.886Z</time></trkpt><trkpt lat="39.91581369289347" lon="8.455241976040348"><ele>3.6666666666666665</ele><time>2026-04-26T14:18:29.886Z</time></trkpt><trkpt lat="39.91581393749116" lon="8.455036924009146"><ele>4.0</ele><time>2026-04-26T14:18:30.886Z</time></trkpt><trkpt lat="39.91581274821529" lon="8.45483995946612"><ele>4.0</ele><time>2026-04-26T14:18:31.886Z</time></trkpt><trkpt lat="39.915816770576896" lon="8.454645089283552"><ele>4.0</ele><time>2026-04-26T14:18:32.886Z</time></trkpt><trkpt lat="39.915816785213" lon="8.454453699103206"><ele>4.0</ele><time>2026-04-26T14:18:33.886Z</time></trkpt><trkpt lat="39.91581638961521" lon="8.454261744521139"><ele>4.0</ele><time>2026-04-26T14:18:34.886Z</time></trkpt><trkpt lat="39.91581524070922" lon="8.454076364763866"><ele>3.75</ele><time>2026-04-26T14:18:35.886Z</time></trkpt><trkpt lat="39.91581435648552" lon="8.453896142041112"><ele>3.5</ele><time>2026-04-26T14:18:36.886Z</time></trkpt><trkpt lat="39.91581180174304" lon="8.453716887091042"><ele>3.25</ele><time>2026-04-26T14:18:37.886Z</time></trkpt><trkpt lat="39.91581165791101" lon="8.45353974425777"><ele>3.0</ele><time>2026-04-26T14:18:38.886Z</time></trkpt><trkpt lat="39.91581641338851" lon="8.4533800629091"><ele>3.0</ele><time>2026-04-26T14:18:39.886Z</time></trkpt><trkpt lat="39.91581489462575" lon="8.453218810351718"><ele>3.0</ele><time>2026-04-26T14:18:40.886Z</time></trkpt><trkpt lat="39.91583581671575" lon="8.453076465603056"><ele>3.0</ele><time>2026-04-26T14:18:41.886Z</time></trkpt><trkpt lat="39.915845757225426" lon="8.452946047282406"><ele>3.0</ele><time>2026-04-26T14:18:42.886Z</time></trkpt><trkpt lat="39.9158786779241" lon="8.452798647441181"><ele>3.25</ele><time>2026-04-26T14:18:43.886Z</time></trkpt><trkpt lat="39.91599489039062" lon="8.452673246603712"><ele>3.5</ele><time>2026-04-26T14:18:44.886Z</time></trkpt><trkpt lat="39.9160122169148" lon="8.452506495766322"><ele>3.75</ele><time>2026-04-26T14:18:45.886Z</time></trkpt><trkpt lat="39.916004941431964" lon="8.452360924338342"><ele>4.0</ele><time>2026-04-26T14:18:46.886Z</time></trkpt><trkpt lat="39.91614526544384" lon="8.452216250092956"><ele>4.0</ele><time>2026-04-26T14:18:47.886Z</time></trkpt><trkpt lat="39.91622341737935" lon="8.45208018220017"><ele>4.0</ele><time>2026-04-26T14:18:48.886Z</time></trkpt><trkpt lat="39.91633319270953" lon="8.451949978794808"><ele>4.0</ele><time>2026-04-26T14:18:49.886Z</time></trkpt><trkpt lat="39.9163121716225" lon="8.452258300219471"><ele>4.0</ele><time>2026-04-26T14:18:50.886Z</time></trkpt><trkpt lat="39.91643026986934" lon="8.452205369202282"><ele>4.0</ele><time>2026-04-26T14:18:51.886Z</time></trkpt><trkpt lat="39.91653789832651" lon="8.452107192709459"><ele>4.0</ele><time>2026-04-26T14:18:52.886Z</time></trkpt><trkpt lat="39.916661418525315" lon="8.452023382989408"><ele>4.0</ele><time>2026-04-26T14:18:53.886Z</time></trkpt><trkpt lat="39.91678667494416" lon="8.451935538248698"><ele>4.0</ele><time>2026-04-26T14:18:54.886Z</time></trkpt><trkpt lat="39.916911789426365" lon="8.451836845417157"><ele>4.0</ele><time>2026-04-26T14:18:55.886Z</time></trkpt><trkpt lat="39.91704224834459" lon="8.451740175313509"><ele>4.0</ele><time>2026-04-26T14:18:56.886Z</time></trkpt><trkpt lat="39.91718022539088" lon="8.451642818454145"><ele>4.0</ele><time>2026-04-26T14:18:57.886Z</time></trkpt><trkpt lat="39.91730931598686" lon="8.451551945867683"><ele>4.0</ele><time>2026-04-26T14:18:58.886Z</time></trkpt><trkpt lat="39.91743449842373" lon="8.451465145662876"><ele>4.0</ele><time>2026-04-26T14:18:59.886Z</time></trkpt><trkpt lat="39.91755688489595" lon="8.45137538209432"><ele>4.0</ele><time>2026-04-26T14:19:00.886Z</time></trkpt><trkpt lat="39.91767077126984" lon="8.451291586926864"><ele>3.5</ele><time>2026-04-26T14:19:01.886Z</time></trkpt><trkpt lat="39.917784251339526" lon="8.45121642008936"><ele>3.0</ele><time>2026-04-26T14:19:02.886Z</time></trkpt><trkpt lat="39.91789942202286" lon="8.451161176029055"><ele>2.5</ele><time>2026-04-26T14:19:03.886Z</time></trkpt><trkpt lat="39.91802384694572" lon="8.45112270705089"><ele>2.0</ele><time>2026-04-26T14:19:04.886Z</time></trkpt><trkpt lat="39.9181515985837" lon="8.451134639200534"><ele>2.0</ele><time>2026-04-26T14:19:05.886Z</time></trkpt><trkpt lat="39.91827567510035" lon="8.451143604549848"><ele>2.0</ele><time>2026-04-26T14:19:06.886Z</time></trkpt><trkpt lat="39.91841557202124" lon="8.451167556450464"><ele>2.0</ele><time>2026-04-26T14:19:07.886Z</time></trkpt><trkpt lat="39.91855760532111" lon="8.451197396198209"><ele>2.0</ele><time>2026-04-26T14:19:08.886Z</time></trkpt><trkpt lat="39.918703134719195" lon="8.451209183162748"><ele>2.25</ele><time>2026-04-26T14:19:09.886Z</time></trkpt><trkpt lat="39.91884813883831" lon="8.451242927576722"><ele>2.5</ele><time>2026-04-26T14:19:10.886Z</time></trkpt><trkpt lat="39.91899083214038" lon="8.451277076640435"><ele>2.75</ele><time>2026-04-26T14:19:11.886Z</time></trkpt><trkpt lat="39.919131308870824" lon="8.451312509470366"><ele>3.0</ele><time>2026-04-26T14:19:12.886Z</time></trkpt><trkpt lat="39.9192675710073" lon="8.451372237205842"><ele>3.5</ele><time>2026-04-26T14:19:13.886Z</time></trkpt><trkpt lat="39.919407872417416" lon="8.451401793085711"><ele>4.0</ele><time>2026-04-26T14:19:14.886Z</time></trkpt><trkpt lat="39.91954097550769" lon="8.45142470377885"><ele>4.5</ele><time>2026-04-26T14:19:15.886Z</time></trkpt><trkpt lat="39.919666652597044" lon="8.451440095602427"><ele>5.0</ele><time>2026-04-26T14:19:16.886Z</time></trkpt><trkpt lat="39.91978862585065" lon="8.451440376721818"><ele>5.0</ele><time>2026-04-26T14:19:17.886Z</time></trkpt><trkpt lat="39.919901480000185" lon="8.451422496253537"><ele>5.0</ele><time>2026-04-26T14:19:18.886Z</time></trkpt><trkpt lat="39.92000113112435" lon="8.451375367658777"><ele>5.0</ele><time>2026-04-26T14:19:19.886Z</time></trkpt><trkpt lat="39.92010369701513" lon="8.45130753814813"><ele>5.0</ele><time>2026-04-26T14:19:20.886Z</time></trkpt><trkpt lat="39.92021135206949" lon="8.451218636186455"><ele>5.5</ele><time>2026-04-26T14:19:21.886Z</time></trkpt><trkpt lat="39.92031399431075" lon="8.451124915197887"><ele>6.0</ele><time>2026-04-26T14:19:22.886Z</time></trkpt><trkpt lat="39.92041506203557" lon="8.451036637709308"><ele>6.5</ele><time>2026-04-26T14:19:23.887Z</time></trkpt><trkpt lat="39.92051938043952" lon="8.450950547142831"><ele>7.0</ele><time>2026-04-26T14:19:24.887Z</time></trkpt><trkpt lat="39.920620233534606" lon="8.450892032351426"><ele>7.0</ele><time>2026-04-26T14:19:25.887Z</time></trkpt><trkpt lat="39.92071917899443" lon="8.45086118246424"><ele>6.999999999999999</ele><time>2026-04-26T14:19:26.887Z</time></trkpt><trkpt lat="39.92082124419899" lon="8.450856112614957"><ele>6.999999999999999</ele><time>2026-04-26T14:19:27.887Z</time></trkpt><trkpt lat="39.92093287102096" lon="8.450873781347074"><ele>7.0</ele><time>2026-04-26T14:19:28.887Z</time></trkpt><trkpt lat="39.92103490686812" lon="8.450919613894348"><ele>7.0</ele><time>2026-04-26T14:19:29.887Z</time></trkpt><trkpt lat="39.9211347901484" lon="8.450997838820374"><ele>7.25</ele><time>2026-04-26T14:19:30.887Z</time></trkpt><trkpt lat="39.92122835576999" lon="8.45109307931667"><ele>7.5</ele><time>2026-04-26T14:19:31.887Z</time></trkpt><trkpt lat="39.921340522072086" lon="8.451190978496893"><ele>7.75</ele><time>2026-04-26T14:19:32.887Z</time></trkpt><trkpt lat="39.92144813413492" lon="8.451286753077131"><ele>8.0</ele><time>2026-04-26T14:19:33.887Z</time></trkpt><trkpt lat="39.92155964856102" lon="8.451383077530298"><ele>8.0</ele><time>2026-04-26T14:19:34.887Z</time></trkpt><trkpt lat="39.92167415819351" lon="8.451477565395598"><ele>8.0</ele><time>2026-04-26T14:19:35.887Z</time></trkpt><trkpt lat="39.921787221486966" lon="8.451580813307212"><ele>8.0</ele><time>2026-04-26T14:19:36.887Z</time></trkpt><trkpt lat="39.92189822847083" lon="8.45168143298667"><ele>8.0</ele><time>2026-04-26T14:19:37.887Z</time></trkpt><trkpt lat="39.92201247076457" lon="8.451780090661343"><ele>8.0</ele><time>2026-04-26T14:19:38.887Z</time></trkpt><trkpt lat="39.92212312759636" lon="8.451880977582427"><ele>8.0</ele><time>2026-04-26T14:19:39.887Z</time></trkpt><trkpt lat="39.922235950258575" lon="8.451980756266087"><ele>8.0</ele><time>2026-04-26T14:19:40.887Z</time></trkpt><trkpt lat="39.922346998515195" lon="8.452080409263028"><ele>8.0</ele><time>2026-04-26T14:19:41.887Z</time></trkpt><trkpt lat="39.92245307482612" lon="8.452172129112073"><ele>8.0</ele><time>2026-04-26T14:19:42.887Z</time></trkpt><trkpt lat="39.922564097354" lon="8.45225835097499"><ele>8.0</ele><time>2026-04-26T14:19:43.887Z</time></trkpt><trkpt lat="39.922669808125654" lon="8.452350481628855"><ele>8.0</ele><time>2026-04-26T14:19:44.887Z</time></trkpt><trkpt lat="39.92277913367769" lon="8.452447114928315"><ele>8.0</ele><time>2026-04-26T14:19:45.887Z</time></trkpt><trkpt lat="39.922897390746854" lon="8.452542678376611"><ele>8.0</ele><time>2026-04-26T14:19:46.887Z</time></trkpt><trkpt lat="39.923015130247194" lon="8.452641496409287"><ele>8.0</ele><time>2026-04-26T14:19:47.887Z</time></trkpt><trkpt lat="39.923136432603286" lon="8.452734251306513"><ele>8.0</ele><time>2026-04-26T14:19:48.887Z</time></trkpt><trkpt lat="39.92325877226003" lon="8.452827488497665"><ele>8.0</ele><time>2026-04-26T14:19:49.887Z</time></trkpt><trkpt lat="39.92338876849577" lon="8.452913498269545"><ele>8.75</ele><time>2026-04-26T14:19:50.887Z</time></trkpt><trkpt lat="39.92351252541368" lon="8.453005337100594"><ele>9.5</ele><time>2026-04-26T14:19:51.887Z</time></trkpt><trkpt lat="39.9236429461787" lon="8.45309628901587"><ele>10.25</ele><time>2026-04-26T14:19:52.887Z</time></trkpt><trkpt lat="39.92376696112675" lon="8.453190015048188"><ele>11.0</ele><time>2026-04-26T14:19:53.887Z</time></trkpt><trkpt lat="39.92389685875806" lon="8.453281084323786"><ele>11.0</ele><time>2026-04-26T14:19:54.887Z</time></trkpt><trkpt lat="39.9240231608089" lon="8.453373414766892"><ele>11.0</ele><time>2026-04-26T14:19:55.887Z</time></trkpt><trkpt lat="39.92414875042555" lon="8.453464895328116"><ele>11.0</ele><time>2026-04-26T14:19:56.887Z</time></trkpt><trkpt lat="39.92427913618194" lon="8.453555008308658"><ele>11.0</ele><time>2026-04-26T14:19:57.887Z</time></trkpt><trkpt lat="39.92440908627516" lon="8.453646982298844"><ele>10.75</ele><time>2026-04-26T14:19:58.887Z</time></trkpt><trkpt lat="39.92453386686949" lon="8.45374428475954"><ele>10.5</ele><time>2026-04-26T14:19:59.887Z</time></trkpt><trkpt lat="39.924653688849816" lon="8.453848002234022"><ele>10.25</ele><time>2026-04-26T14:20:00.887Z</time></trkpt><trkpt lat="39.924775777689405" lon="8.453952323863994"><ele>10.0</ele><time>2026-04-26T14:20:01.887Z</time></trkpt><trkpt lat="39.924897994925885" lon="8.454061858493318"><ele>10.0</ele><time>2026-04-26T14:20:02.887Z</time></trkpt><trkpt lat="39.9250170702839" lon="8.454163032776485"><ele>10.0</ele><time>2026-04-26T14:20:03.887Z</time></trkpt><trkpt lat="39.92512875938809" lon="8.454261633700995"><ele>10.0</ele><time>2026-04-26T14:20:04.887Z</time></trkpt><trkpt lat="39.92523443104784" lon="8.454356846381545"><ele>10.0</ele><time>2026-04-26T14:20:05.887Z</time></trkpt><trkpt lat="39.92534789033227" lon="8.4544427803629"><ele>10.5</ele><time>2026-04-26T14:20:06.887Z</time></trkpt><trkpt lat="39.92546008510277" lon="8.454504259124306"><ele>11.0</ele><time>2026-04-26T14:20:07.887Z</time></trkpt><trkpt lat="39.92557902200518" lon="8.45455858458702"><ele>11.5</ele><time>2026-04-26T14:20:08.887Z</time></trkpt><trkpt lat="39.925705570476985" lon="8.454594392184825"><ele>12.0</ele><time>2026-04-26T14:20:09.887Z</time></trkpt><trkpt lat="39.92584266882328" lon="8.454615805221904"><ele>12.0</ele><time>2026-04-26T14:20:10.887Z</time></trkpt><trkpt lat="39.92598327666472" lon="8.454627882032112"><ele>12.0</ele><time>2026-04-26T14:20:11.887Z</time></trkpt><trkpt lat="39.92612263433365" lon="8.45463779184375"><ele>12.0</ele><time>2026-04-26T14:20:12.887Z</time></trkpt><trkpt lat="39.92625824750272" lon="8.454649554320858"><ele>12.0</ele><time>2026-04-26T14:20:13.887Z</time></trkpt><trkpt lat="39.92638700995363" lon="8.454662063422122"><ele>12.0</ele><time>2026-04-26T14:20:14.887Z</time></trkpt><trkpt lat="39.926524624454636" lon="8.454669238671404"><ele>12.0</ele><time>2026-04-26T14:20:15.887Z</time></trkpt><trkpt lat="39.926659575273874" lon="8.454700142567216"><ele>12.0</ele><time>2026-04-26T14:20:16.887Z</time></trkpt><trkpt lat="39.92678513952895" lon="8.454729069359756"><ele>12.0</ele><time>2026-04-26T14:20:17.887Z</time></trkpt><trkpt lat="39.926910876137896" lon="8.454772961688725"><ele>13.0</ele><time>2026-04-26T14:20:18.886Z</time></trkpt><trkpt lat="39.92703926603088" lon="8.454818673254662"><ele>14.0</ele><time>2026-04-26T14:20:19.886Z</time></trkpt><trkpt lat="39.92717319879561" lon="8.454869539120928"><ele>15.0</ele><time>2026-04-26T14:20:20.886Z</time></trkpt><trkpt lat="39.927309156465036" lon="8.45492238129127"><ele>16.0</ele><time>2026-04-26T14:20:21.885Z</time></trkpt><trkpt lat="39.92745113006813" lon="8.454974885076545"><ele>16.5</ele><time>2026-04-26T14:20:22.886Z</time></trkpt><trkpt lat="39.92758918326457" lon="8.455028843425396"><ele>17.0</ele><time>2026-04-26T14:20:23.886Z</time></trkpt><trkpt lat="39.92772328506446" lon="8.455081112458188"><ele>17.5</ele><time>2026-04-26T14:20:24.886Z</time></trkpt><trkpt lat="39.927854801128184" lon="8.455137696571825"><ele>18.0</ele><time>2026-04-26T14:20:25.885Z</time></trkpt><trkpt lat="39.9279848637041" lon="8.455185308352409"><ele>18.0</ele><time>2026-04-26T14:20:26.885Z</time></trkpt><trkpt lat="39.92812192975006" lon="8.455231172253557"><ele>18.0</ele><time>2026-04-26T14:20:27.886Z</time></trkpt><trkpt lat="39.92824387918706" lon="8.455282328024346"><ele>18.0</ele><time>2026-04-26T14:20:28.886Z</time></trkpt><trkpt lat="39.928368310213834" lon="8.455324375713737"><ele>18.0</ele><time>2026-04-26T14:20:29.886Z</time></trkpt><trkpt lat="39.92848100425757" lon="8.455372130803875"><ele>18.2</ele><time>2026-04-26T14:20:30.886Z</time></trkpt><trkpt lat="39.92859141540586" lon="8.45541387735549"><ele>18.4</ele><time>2026-04-26T14:20:31.885Z</time></trkpt><trkpt lat="39.9286886065981" lon="8.455453304950455"><ele>18.599999999999998</ele><time>2026-04-26T14:20:32.885Z</time></trkpt><trkpt lat="39.92877648918502" lon="8.455487535520314"><ele>18.8</ele><time>2026-04-26T14:20:33.885Z</time></trkpt><trkpt lat="39.92885355192426" lon="8.455524193219393"><ele>19.0</ele><time>2026-04-26T14:20:34.885Z</time></trkpt><trkpt lat="39.928914982739286" lon="8.455561738044302"><ele>19.0</ele><time>2026-04-26T14:20:35.885Z</time></trkpt><trkpt lat="39.92897219299664" lon="8.4556073371018"><ele>19.0</ele><time>2026-04-26T14:20:36.885Z</time></trkpt><trkpt lat="39.92903380834469" lon="8.45568199257175"><ele>19.0</ele><time>2026-04-26T14:20:38.885Z</time></trkpt><trkpt lat="39.9290111012453" lon="8.455831407347715"><ele>19.0</ele><time>2026-04-26T14:20:41.885Z</time></trkpt><trkpt lat="39.929167670489235" lon="8.455812717234279"><ele>19.0</ele><time>2026-04-26T14:22:14.886Z</time></trkpt><trkpt lat="39.92924625203792" lon="8.45581683634323"><ele>19.0</ele><time>2026-04-26T14:22:16.886Z</time></trkpt><trkpt lat="39.92936222565568" lon="8.455899517418942"><ele>19.0</ele><time>2026-04-26T14:22:18.886Z</time></trkpt><trkpt lat="39.929422265756465" lon="8.45595222728779"><ele>19.0</ele><time>2026-04-26T14:22:19.886Z</time></trkpt><trkpt lat="39.929494483781795" lon="8.456020713254375"><ele>19.0</ele><time>2026-04-26T14:22:20.886Z</time></trkpt><trkpt lat="39.92957642019098" lon="8.456093872480844"><ele>19.0</ele><time>2026-04-26T14:22:21.886Z</time></trkpt><trkpt lat="39.92967041265978" lon="8.456167520020738"><ele>19.0</ele><time>2026-04-26T14:22:22.886Z</time></trkpt><trkpt lat="39.929764349865856" lon="8.45624608596214"><ele>19.0</ele><time>2026-04-26T14:22:23.886Z</time></trkpt><trkpt lat="39.92986661951155" lon="8.456335991694884"><ele>19.0</ele><time>2026-04-26T14:22:24.886Z</time></trkpt><trkpt lat="39.92997089680079" lon="8.456427560518314"><ele>19.0</ele><time>2026-04-26T14:22:25.886Z</time></trkpt><trkpt lat="39.930078848093565" lon="8.456520273758498"><ele>18.5</ele><time>2026-04-26T14:22:26.886Z</time></trkpt><trkpt lat="39.9301834664934" lon="8.45661398451236"><ele>18.0</ele><time>2026-04-26T14:22:27.886Z</time></trkpt><trkpt lat="39.930291582326554" lon="8.456709131365889"><ele>17.5</ele><time>2026-04-26T14:22:28.886Z</time></trkpt><trkpt lat="39.93040134304102" lon="8.456805603552565"><ele>17.0</ele><time>2026-04-26T14:22:29.886Z</time></trkpt><trkpt lat="39.93051021817814" lon="8.456904928825388"><ele>17.0</ele><time>2026-04-26T14:22:30.886Z</time></trkpt><trkpt lat="39.93062091780236" lon="8.457000548812694"><ele>17.0</ele><time>2026-04-26T14:22:31.886Z</time></trkpt><trkpt lat="39.93073183823421" lon="8.457095529922752"><ele>17.0</ele><time>2026-04-26T14:22:32.886Z</time></trkpt><trkpt lat="39.93084258139022" lon="8.457182237262941"><ele>17.0</ele><time>2026-04-26T14:22:33.886Z</time></trkpt><trkpt lat="39.93095798622741" lon="8.457254436307966"><ele>15.0</ele><time>2026-04-26T14:22:34.886Z</time></trkpt><trkpt lat="39.93108185575756" lon="8.45731180003647"><ele>13.0</ele><time>2026-04-26T14:22:35.886Z</time></trkpt><trkpt lat="39.93120960591598" lon="8.457359689148765"><ele>11.0</ele><time>2026-04-26T14:22:36.886Z</time></trkpt><trkpt lat="39.93134275842934" lon="8.45739825434475"><ele>9.0</ele><time>2026-04-26T14:22:37.886Z</time></trkpt><trkpt lat="39.931484305060096" lon="8.457430852969946"><ele>9.0</ele><time>2026-04-26T14:22:38.886Z</time></trkpt><trkpt lat="39.9316227476925" lon="8.457460911442283"><ele>9.0</ele><time>2026-04-26T14:22:39.886Z</time></trkpt><trkpt lat="39.93176245244682" lon="8.457479018914242"><ele>9.0</ele><time>2026-04-26T14:22:40.886Z</time></trkpt><trkpt lat="39.931901561023075" lon="8.457472402604582"><ele>9.0</ele><time>2026-04-26T14:22:41.886Z</time></trkpt><trkpt lat="39.93204002124689" lon="8.45745165411105"><ele>9.25</ele><time>2026-04-26T14:22:42.886Z</time></trkpt><trkpt lat="39.93217961154019" lon="8.457413120538206"><ele>9.5</ele><time>2026-04-26T14:22:43.885Z</time></trkpt><trkpt lat="39.9323172186304" lon="8.457364189827105"><ele>9.75</ele><time>2026-04-26T14:22:44.885Z</time></trkpt><trkpt lat="39.93245872035669" lon="8.457315184190897"><ele>10.0</ele><time>2026-04-26T14:22:45.885Z</time></trkpt><trkpt lat="39.93260189778907" lon="8.457262703752473"><ele>10.5</ele><time>2026-04-26T14:22:46.885Z</time></trkpt><trkpt lat="39.93274533815904" lon="8.457210597820893"><ele>11.0</ele><time>2026-04-26T14:22:47.885Z</time></trkpt><trkpt lat="39.93288964224174" lon="8.457159406628987"><ele>11.5</ele><time>2026-04-26T14:22:48.885Z</time></trkpt><trkpt lat="39.93302855764495" lon="8.457115298889084"><ele>12.0</ele><time>2026-04-26T14:22:49.885Z</time></trkpt><trkpt lat="39.9331669949236" lon="8.457067832081709"><ele>12.75</ele><time>2026-04-26T14:22:50.885Z</time></trkpt><trkpt lat="39.933306782128" lon="8.457016956449342"><ele>13.5</ele><time>2026-04-26T14:22:51.885Z</time></trkpt><trkpt lat="39.93344756170913" lon="8.456965229766448"><ele>14.25</ele><time>2026-04-26T14:22:52.885Z</time></trkpt><trkpt lat="39.933587389499976" lon="8.45690682051267"><ele>15.0</ele><time>2026-04-26T14:22:53.885Z</time></trkpt><trkpt lat="39.933726298667565" lon="8.456841413022916"><ele>15.0</ele><time>2026-04-26T14:22:54.885Z</time></trkpt><trkpt lat="39.93386827640465" lon="8.456761284326076"><ele>15.0</ele><time>2026-04-26T14:22:55.885Z</time></trkpt><trkpt lat="39.934008188530015" lon="8.456679803698846"><ele>15.0</ele><time>2026-04-26T14:22:56.885Z</time></trkpt><trkpt lat="39.934148533272996" lon="8.456602841447065"><ele>14.75</ele><time>2026-04-26T14:22:57.885Z</time></trkpt><trkpt lat="39.93428584471964" lon="8.456530901226337"><ele>14.5</ele><time>2026-04-26T14:22:58.885Z</time></trkpt><trkpt lat="39.93442602560207" lon="8.456471444582087"><ele>14.25</ele><time>2026-04-26T14:22:59.885Z</time></trkpt><trkpt lat="39.93456586119843" lon="8.45644247143976"><ele>14.0</ele><time>2026-04-26T14:23:00.885Z</time></trkpt><trkpt lat="39.93468656015894" lon="8.456452926544586"><ele>14.0</ele><time>2026-04-26T14:23:01.885Z</time></trkpt><trkpt lat="39.93478756111468" lon="8.456478982259796"><ele>13.999999999999998</ele><time>2026-04-26T14:23:02.885Z</time></trkpt><trkpt lat="39.93488438396666" lon="8.456534403220525"><ele>13.999999999999998</ele><time>2026-04-26T14:23:03.885Z</time></trkpt><trkpt lat="39.93498144056482" lon="8.456602015615609"><ele>14.0</ele><time>2026-04-26T14:23:04.885Z</time></trkpt><trkpt lat="39.935095266708295" lon="8.456674913145932"><ele>14.0</ele><time>2026-04-26T14:23:05.885Z</time></trkpt><trkpt lat="39.93520302417751" lon="8.456761163719756"><ele>14.0</ele><time>2026-04-26T14:23:06.885Z</time></trkpt><trkpt lat="39.93531301674804" lon="8.456852769219168"><ele>14.0</ele><time>2026-04-26T14:23:07.885Z</time></trkpt><trkpt lat="39.93542778037705" lon="8.456947365116662"><ele>14.0</ele><time>2026-04-26T14:23:08.885Z</time></trkpt><trkpt lat="39.93554751028497" lon="8.457048473418958"><ele>14.0</ele><time>2026-04-26T14:23:09.885Z</time></trkpt><trkpt lat="39.935666744267216" lon="8.457148248043868"><ele>13.25</ele><time>2026-04-26T14:23:10.885Z</time></trkpt><trkpt lat="39.935785440935206" lon="8.457245845746963"><ele>12.5</ele><time>2026-04-26T14:23:11.885Z</time></trkpt><trkpt lat="39.9359014669803" lon="8.457345432307168"><ele>11.75</ele><time>2026-04-26T14:23:12.885Z</time></trkpt><trkpt lat="39.936016326733686" lon="8.45744722498183"><ele>11.0</ele><time>2026-04-26T14:23:13.885Z</time></trkpt><trkpt lat="39.936133575254146" lon="8.45754614845404"><ele>10.25</ele><time>2026-04-26T14:23:14.885Z</time></trkpt><trkpt lat="39.936254317369745" lon="8.457643401845754"><ele>9.5</ele><time>2026-04-26T14:23:15.885Z</time></trkpt><trkpt lat="39.936374242902545" lon="8.4577408282755"><ele>8.75</ele><time>2026-04-26T14:23:16.885Z</time></trkpt><trkpt lat="39.936490481196934" lon="8.45783215487793"><ele>8.0</ele><time>2026-04-26T14:23:17.885Z</time></trkpt><trkpt lat="39.936603804573735" lon="8.45791655946905"><ele>7.5</ele><time>2026-04-26T14:23:18.885Z</time></trkpt><trkpt lat="39.93671897913006" lon="8.457987364635434"><ele>7.0</ele><time>2026-04-26T14:23:19.885Z</time></trkpt><trkpt lat="39.93683876310376" lon="8.458041567998894"><ele>6.5</ele><time>2026-04-26T14:23:20.885Z</time></trkpt><trkpt lat="39.93696527954231" lon="8.45808437983881"><ele>6.0</ele><time>2026-04-26T14:23:21.885Z</time></trkpt><trkpt lat="39.93709134357438" lon="8.458110465777821"><ele>5.75</ele><time>2026-04-26T14:23:22.885Z</time></trkpt><trkpt lat="39.93722178207085" lon="8.458128437056178"><ele>5.5</ele><time>2026-04-26T14:23:23.885Z</time></trkpt><trkpt lat="39.93735998193125" lon="8.458140199036988"><ele>5.25</ele><time>2026-04-26T14:23:24.885Z</time></trkpt><trkpt lat="39.937503359104205" lon="8.458155620082987"><ele>5.0</ele><time>2026-04-26T14:23:25.885Z</time></trkpt><trkpt lat="39.93764797990227" lon="8.45817320832523"><ele>5.0</ele><time>2026-04-26T14:23:26.885Z</time></trkpt><trkpt lat="39.93779074410079" lon="8.45819104983774"><ele>5.0</ele><time>2026-04-26T14:23:27.885Z</time></trkpt><trkpt lat="39.937936024935674" lon="8.458211480546439"><ele>5.0</ele><time>2026-04-26T14:23:28.885Z</time></trkpt><trkpt lat="39.938077432075346" lon="8.458224592519827"><ele>5.0</ele><time>2026-04-26T14:23:29.885Z</time></trkpt><trkpt lat="39.93822066153478" lon="8.458238962387375"><ele>5.0</ele><time>2026-04-26T14:23:30.885Z</time></trkpt><trkpt lat="39.93836221208863" lon="8.458254417531375"><ele>5.0</ele><time>2026-04-26T14:23:31.885Z</time></trkpt><trkpt lat="39.93850395928002" lon="8.458267875395245"><ele>5.0</ele><time>2026-04-26T14:23:32.885Z</time></trkpt><trkpt lat="39.93864548583111" lon="8.458285824740337"><ele>5.0</ele><time>2026-04-26T14:23:33.885Z</time></trkpt><trkpt lat="39.938786318702505" lon="8.458299049714993"><ele>4.75</ele><time>2026-04-26T14:23:34.885Z</time></trkpt><trkpt lat="39.9389205461339" lon="8.458303414518538"><ele>4.5</ele><time>2026-04-26T14:23:35.885Z</time></trkpt><trkpt lat="39.93905236159443" lon="8.458291279973805"><ele>4.25</ele><time>2026-04-26T14:23:36.885Z</time></trkpt><trkpt lat="39.939186001025654" lon="8.45826581253485"><ele>4.0</ele><time>2026-04-26T14:23:37.885Z</time></trkpt><trkpt lat="39.93931951518227" lon="8.458225057750445"><ele>3.75</ele><time>2026-04-26T14:23:38.885Z</time></trkpt><trkpt lat="39.93945852384543" lon="8.458179411956726"><ele>3.5</ele><time>2026-04-26T14:23:39.885Z</time></trkpt><trkpt lat="39.93960081924025" lon="8.458129749992924"><ele>3.25</ele><time>2026-04-26T14:23:40.885Z</time></trkpt><trkpt lat="39.93974524050774" lon="8.458079323765693"><ele>3.0</ele><time>2026-04-26T14:23:41.885Z</time></trkpt><trkpt lat="39.93989087210088" lon="8.458030124420665"><ele>3.0</ele><time>2026-04-26T14:23:42.885Z</time></trkpt><trkpt lat="39.940035000782" lon="8.457982641373555"><ele>3.0</ele><time>2026-04-26T14:23:43.886Z</time></trkpt><trkpt lat="39.940182437546305" lon="8.457934348601754"><ele>3.0</ele><time>2026-04-26T14:23:44.886Z</time></trkpt><trkpt lat="39.94033086107617" lon="8.457884985349828"><ele>3.0</ele><time>2026-04-26T14:23:45.886Z</time></trkpt><trkpt lat="39.940479217587594" lon="8.457837432616017"><ele>3.0</ele><time>2026-04-26T14:23:46.886Z</time></trkpt><trkpt lat="39.940630464204816" lon="8.457787660655324"><ele>3.0</ele><time>2026-04-26T14:23:47.886Z</time></trkpt><trkpt lat="39.94078052857155" lon="8.457737119609405"><ele>3.0</ele><time>2026-04-26T14:23:48.886Z</time></trkpt><trkpt lat="39.94093422178944" lon="8.457684271027322"><ele>3.0</ele><time>2026-04-26T14:23:49.886Z</time></trkpt><trkpt lat="39.941087850451936" lon="8.457633928412415"><ele>3.0</ele><time>2026-04-26T14:23:50.886Z</time></trkpt><trkpt lat="39.94124215117755" lon="8.457583517812548"><ele>3.0</ele><time>2026-04-26T14:23:51.886Z</time></trkpt><trkpt lat="39.94139325740664" lon="8.457533712196396"><ele>3.0</ele><time>2026-04-26T14:23:52.886Z</time></trkpt><trkpt lat="39.94154938224699" lon="8.457477566903185"><ele>3.0</ele><time>2026-04-26T14:23:53.886Z</time></trkpt><trkpt lat="39.941702342382484" lon="8.457424995020824"><ele>3.0</ele><time>2026-04-26T14:23:54.886Z</time></trkpt><trkpt lat="39.94185351212976" lon="8.45737498355402"><ele>3.0</ele><time>2026-04-26T14:23:55.886Z</time></trkpt><trkpt lat="39.9420089234956" lon="8.457322160868019"><ele>3.0</ele><time>2026-04-26T14:23:56.886Z</time></trkpt><trkpt lat="39.94216239109152" lon="8.457270975837826"><ele>3.0</ele><time>2026-04-26T14:23:57.886Z</time></trkpt><trkpt lat="39.94231882384876" lon="8.45722029518672"><ele>3.0</ele><time>2026-04-26T14:23:58.886Z</time></trkpt><trkpt lat="39.94247425824171" lon="8.457167869284437"><ele>3.0</ele><time>2026-04-26T14:23:59.886Z</time></trkpt><trkpt lat="39.942628122772675" lon="8.457115191181861"><ele>3.666666666666667</ele><time>2026-04-26T14:24:00.886Z</time></trkpt><trkpt lat="39.94277963179722" lon="8.457065953655349"><ele>4.333333333333334</ele><time>2026-04-26T14:24:01.886Z</time></trkpt><trkpt lat="39.94293005442831" lon="8.457019443073692"><ele>5.0</ele><time>2026-04-26T14:24:02.886Z</time></trkpt><trkpt lat="39.94308589623401" lon="8.45697370121949"><ele>5.0</ele><time>2026-04-26T14:24:03.886Z</time></trkpt><trkpt lat="39.94324430738665" lon="8.456936066548298"><ele>5.0</ele><time>2026-04-26T14:24:04.886Z</time></trkpt><trkpt lat="39.9434079405616" lon="8.456906734580333"><ele>5.0</ele><time>2026-04-26T14:24:05.886Z</time></trkpt><trkpt lat="39.94357069453684" lon="8.456877709371403"><ele>5.0</ele><time>2026-04-26T14:24:06.886Z</time></trkpt><trkpt lat="39.943732074925215" lon="8.456845447183802"><ele>5.0</ele><time>2026-04-26T14:24:07.886Z</time></trkpt><trkpt lat="39.943898641499516" lon="8.456812743536409"><ele>5.0</ele><time>2026-04-26T14:24:08.886Z</time></trkpt><trkpt lat="39.9440554250108" lon="8.45678604950783"><ele>5.0</ele><time>2026-04-26T14:24:09.886Z</time></trkpt><trkpt lat="39.94421328553405" lon="8.45675762010304"><ele>5.0</ele><time>2026-04-26T14:24:10.886Z</time></trkpt><trkpt lat="39.94437654515142" lon="8.456725784150631"><ele>5.0</ele><time>2026-04-26T14:24:11.886Z</time></trkpt><trkpt lat="39.94453807881496" lon="8.45669526085201"><ele>5.0</ele><time>2026-04-26T14:24:12.886Z</time></trkpt><trkpt lat="39.94470420077458" lon="8.456661170967704"><ele>5.0</ele><time>2026-04-26T14:24:13.886Z</time></trkpt><trkpt lat="39.94486956496162" lon="8.456626200955995"><ele>5.0</ele><time>2026-04-26T14:24:14.886Z</time></trkpt><trkpt lat="39.94503421281742" lon="8.456590859656886"><ele>5.0</ele><time>2026-04-26T14:24:15.886Z</time></trkpt><trkpt lat="39.94519971668291" lon="8.456555190177088"><ele>5.0</ele><time>2026-04-26T14:24:16.886Z</time></trkpt><trkpt lat="39.94536699094052" lon="8.456517973226413"><ele>5.0</ele><time>2026-04-26T14:24:17.886Z</time></trkpt><trkpt lat="39.94553593687859" lon="8.456482404463468"><ele>5.0</ele><time>2026-04-26T14:24:18.886Z</time></trkpt><trkpt lat="39.94570614527852" lon="8.456451522525613"><ele>5.0</ele><time>2026-04-26T14:24:19.886Z</time></trkpt><trkpt lat="39.94588013403765" lon="8.456419280583997"><ele>5.0</ele><time>2026-04-26T14:24:20.886Z</time></trkpt><trkpt lat="39.94605330873015" lon="8.456389962610938"><ele>4.666666666666667</ele><time>2026-04-26T14:24:21.886Z</time></trkpt><trkpt lat="39.94621904330253" lon="8.456367358339548"><ele>4.333333333333333</ele><time>2026-04-26T14:24:22.886Z</time></trkpt><trkpt lat="39.94637104497489" lon="8.45633768561638"><ele>4.0</ele><time>2026-04-26T14:24:23.886Z</time></trkpt><trkpt lat="39.94652096263751" lon="8.45630617490949"><ele>4.666666666666666</ele><time>2026-04-26T14:24:24.886Z</time></trkpt><trkpt lat="39.946676914651306" lon="8.456271726845282"><ele>5.333333333333333</ele><time>2026-04-26T14:24:25.886Z</time></trkpt><trkpt lat="39.94682922705774" lon="8.456240807796561"><ele>6.0</ele><time>2026-04-26T14:24:26.886Z</time></trkpt><trkpt lat="39.946986779392454" lon="8.45621025333362"><ele>6.0</ele><time>2026-04-26T14:24:27.886Z</time></trkpt><trkpt lat="39.94715059979768" lon="8.456177065997425"><ele>6.0</ele><time>2026-04-26T14:24:28.886Z</time></trkpt><trkpt lat="39.9473215674654" lon="8.456134033796532"><ele>6.0</ele><time>2026-04-26T14:24:29.886Z</time></trkpt><trkpt lat="39.947488724569084" lon="8.456101624486754"><ele>6.0</ele><time>2026-04-26T14:24:30.885Z</time></trkpt><trkpt lat="39.94765809219886" lon="8.45606682515098"><ele>6.0</ele><time>2026-04-26T14:24:31.885Z</time></trkpt><trkpt lat="39.947835069643716" lon="8.45602479996034"><ele>6.0</ele><time>2026-04-26T14:24:32.887Z</time></trkpt><trkpt lat="39.948018888817046" lon="8.455976336945893"><ele>6.0</ele><time>2026-04-26T14:24:33.889Z</time></trkpt><trkpt lat="39.94818157303331" lon="8.455946279557047"><ele>6.0</ele><time>2026-04-26T14:24:34.891Z</time></trkpt><trkpt lat="39.948344241572265" lon="8.455914289976798"><ele>6.0</ele><time>2026-04-26T14:24:35.892Z</time></trkpt><trkpt lat="39.94850369116595" lon="8.45588138117423"><ele>6.25</ele><time>2026-04-26T14:24:36.893Z</time></trkpt><trkpt lat="39.94864167158607" lon="8.45586149974669"><ele>6.5</ele><time>2026-04-26T14:24:37.895Z</time></trkpt><trkpt lat="39.94878574472314" lon="8.455835276708829"><ele>6.75</ele><time>2026-04-26T14:24:38.896Z</time></trkpt><trkpt lat="39.94894161367002" lon="8.455805581310655"><ele>7.0</ele><time>2026-04-26T14:24:39.897Z</time></trkpt><trkpt lat="39.94909924652166" lon="8.455773136211615"><ele>6.666666666666667</ele><time>2026-04-26T14:24:40.898Z</time></trkpt><trkpt lat="39.949257948309416" lon="8.455748003941583"><ele>6.333333333333334</ele><time>2026-04-26T14:24:41.899Z</time></trkpt><trkpt lat="39.94941652196885" lon="8.455721624222619"><ele>6.0</ele><time>2026-04-26T14:24:42.899Z</time></trkpt><trkpt lat="39.949574727607036" lon="8.455693835891251"><ele>6.0</ele><time>2026-04-26T14:24:43.901Z</time></trkpt><trkpt lat="39.94973351567433" lon="8.455664321574965"><ele>6.0</ele><time>2026-04-26T14:24:44.902Z</time></trkpt><trkpt lat="39.949889964162594" lon="8.455632394612309"><ele>6.0</ele><time>2026-04-26T14:24:45.902Z</time></trkpt><trkpt lat="39.950047499882615" lon="8.455603543884877"><ele>5.666666666666667</ele><time>2026-04-26T14:24:46.903Z</time></trkpt><trkpt lat="39.95020224189645" lon="8.455578562760138"><ele>5.333333333333334</ele><time>2026-04-26T14:24:47.904Z</time></trkpt><trkpt lat="39.950355211490205" lon="8.45554895263496"><ele>5.0</ele><time>2026-04-26T14:24:48.904Z</time></trkpt><trkpt lat="39.95050433732864" lon="8.455516328990738"><ele>5.0</ele><time>2026-04-26T14:24:49.905Z</time></trkpt><trkpt lat="39.950651582226136" lon="8.455481995757808"><ele>5.0</ele><time>2026-04-26T14:24:50.905Z</time></trkpt><trkpt lat="39.95079822657241" lon="8.455442236115026"><ele>5.0</ele><time>2026-04-26T14:24:51.906Z</time></trkpt><trkpt lat="39.950945061428435" lon="8.455404317360705"><ele>5.0</ele><time>2026-04-26T14:24:52.906Z</time></trkpt><trkpt lat="39.951090293292665" lon="8.45536504593364"><ele>5.666666666666667</ele><time>2026-04-26T14:24:53.907Z</time></trkpt><trkpt lat="39.95123325161852" lon="8.455322020500768"><ele>6.333333333333334</ele><time>2026-04-26T14:24:54.907Z</time></trkpt><trkpt lat="39.95137863461524" lon="8.45526977347101"><ele>7.0</ele><time>2026-04-26T14:24:55.908Z</time></trkpt><trkpt lat="39.9515252637016" lon="8.45521568756185"><ele>7.0</ele><time>2026-04-26T14:24:56.908Z</time></trkpt><trkpt lat="39.95167551916053" lon="8.45515494354873"><ele>7.0</ele><time>2026-04-26T14:24:57.908Z</time></trkpt><trkpt lat="39.951824392175325" lon="8.455094025984312"><ele>7.0</ele><time>2026-04-26T14:24:58.909Z</time></trkpt><trkpt lat="39.95197283191989" lon="8.45502983836308"><ele>7.0</ele><time>2026-04-26T14:24:59.909Z</time></trkpt><trkpt lat="39.95212369627819" lon="8.45496523908463"><ele>7.0</ele><time>2026-04-26T14:25:00.909Z</time></trkpt><trkpt lat="39.95227842606448" lon="8.454904151792546"><ele>7.0</ele><time>2026-04-26T14:25:01.91Z</time></trkpt><trkpt lat="39.95243120805438" lon="8.454844875267561"><ele>7.0</ele><time>2026-04-26T14:25:02.91Z</time></trkpt><trkpt lat="39.952580087875226" lon="8.454786397864215"><ele>7.0</ele><time>2026-04-26T14:25:03.91Z</time></trkpt><trkpt lat="39.95273533210933" lon="8.454732320626297"><ele>7.0</ele><time>2026-04-26T14:25:04.91Z</time></trkpt><trkpt lat="39.95289327551398" lon="8.454681107451044"><ele>7.0</ele><time>2026-04-26T14:25:05.911Z</time></trkpt><trkpt lat="39.95305797077478" lon="8.454633730909384"><ele>7.0</ele><time>2026-04-26T14:25:06.911Z</time></trkpt><trkpt lat="39.9532233471067" lon="8.45459725557441"><ele>7.0</ele><time>2026-04-26T14:25:07.911Z</time></trkpt><trkpt lat="39.953387374392335" lon="8.45456116263005"><ele>8.333333333333334</ele><time>2026-04-26T14:25:08.911Z</time></trkpt><trkpt lat="39.9535524277311" lon="8.454523622025327"><ele>9.666666666666666</ele><time>2026-04-26T14:25:09.911Z</time></trkpt><trkpt lat="39.953716686018055" lon="8.454489007702055"><ele>11.0</ele><time>2026-04-26T14:25:10.912Z</time></trkpt><trkpt lat="39.95388147139025" lon="8.454455866672218"><ele>11.0</ele><time>2026-04-26T14:25:11.912Z</time></trkpt><trkpt lat="39.95404730688227" lon="8.454422417692765"><ele>11.0</ele><time>2026-04-26T14:25:12.912Z</time></trkpt><trkpt lat="39.954216498221854" lon="8.454387083710985"><ele>11.0</ele><time>2026-04-26T14:25:13.912Z</time></trkpt><trkpt lat="39.95438236314249" lon="8.454352651972886"><ele>10.333333333333332</ele><time>2026-04-26T14:25:14.912Z</time></trkpt><trkpt lat="39.954551169987624" lon="8.454314757993208"><ele>9.666666666666666</ele><time>2026-04-26T14:25:15.912Z</time></trkpt><trkpt lat="39.95472238377723" lon="8.454277009399012"><ele>9.0</ele><time>2026-04-26T14:25:16.912Z</time></trkpt><trkpt lat="39.954893996400585" lon="8.454241445648233"><ele>8.666666666666666</ele><time>2026-04-26T14:25:17.913Z</time></trkpt><trkpt lat="39.95506279326965" lon="8.454208494486014"><ele>8.333333333333332</ele><time>2026-04-26T14:25:18.913Z</time></trkpt><trkpt lat="39.955230622575684" lon="8.454174091661343"><ele>8.0</ele><time>2026-04-26T14:25:19.913Z</time></trkpt><trkpt lat="39.955400422464734" lon="8.45413793469727"><ele>8.0</ele><time>2026-04-26T14:25:20.913Z</time></trkpt><trkpt lat="39.95557090579019" lon="8.454100219203397"><ele>8.0</ele><time>2026-04-26T14:25:21.913Z</time></trkpt><trkpt lat="39.95574010680397" lon="8.454063739811165"><ele>8.0</ele><time>2026-04-26T14:25:22.913Z</time></trkpt><trkpt lat="39.95591077504362" lon="8.454027533734047"><ele>7.666666666666666</ele><time>2026-04-26T14:25:23.913Z</time></trkpt><trkpt lat="39.95608030650725" lon="8.453990657038352"><ele>7.333333333333334</ele><time>2026-04-26T14:25:24.913Z</time></trkpt><trkpt lat="39.95625041002985" lon="8.45395614710547"><ele>7.0</ele><time>2026-04-26T14:25:25.913Z</time></trkpt><trkpt lat="39.95641793740003" lon="8.453924461903746"><ele>7.0</ele><time>2026-04-26T14:25:26.913Z</time></trkpt><trkpt lat="39.95658499823715" lon="8.453889329315546"><ele>7.0</ele><time>2026-04-26T14:25:27.913Z</time></trkpt><trkpt lat="39.9567519360247" lon="8.4538570805429"><ele>7.0</ele><time>2026-04-26T14:25:28.913Z</time></trkpt><trkpt lat="39.95691707691526" lon="8.453824870783706"><ele>6.666666666666667</ele><time>2026-04-26T14:25:29.913Z</time></trkpt><trkpt lat="39.9570847870277" lon="8.453789785371688"><ele>6.333333333333334</ele><time>2026-04-26T14:25:30.914Z</time></trkpt><trkpt lat="39.957240676134376" lon="8.453763423001798"><ele>6.0</ele><time>2026-04-26T14:25:31.914Z</time></trkpt><trkpt lat="39.95739199916971" lon="8.453732373629835"><ele>6.666666666666666</ele><time>2026-04-26T14:25:32.914Z</time></trkpt><trkpt lat="39.95754570422148" lon="8.453701668569282"><ele>7.333333333333333</ele><time>2026-04-26T14:25:33.914Z</time></trkpt><trkpt lat="39.95769692861086" lon="8.453672684300889"><ele>8.0</ele><time>2026-04-26T14:25:34.914Z</time></trkpt><trkpt lat="39.95784551233916" lon="8.453644778329696"><ele>8.0</ele><time>2026-04-26T14:25:35.914Z</time></trkpt><trkpt lat="39.95799215127831" lon="8.453622408156395"><ele>8.0</ele><time>2026-04-26T14:25:36.914Z</time></trkpt><trkpt lat="39.958136172740005" lon="8.45360382370536"><ele>8.0</ele><time>2026-04-26T14:25:37.914Z</time></trkpt><trkpt lat="39.95827662629557" lon="8.453595281327017"><ele>8.0</ele><time>2026-04-26T14:25:38.914Z</time></trkpt><trkpt lat="39.958409285225336" lon="8.453587569356316"><ele>8.25</ele><time>2026-04-26T14:25:39.914Z</time></trkpt><trkpt lat="39.95853244182592" lon="8.453581878704691"><ele>8.5</ele><time>2026-04-26T14:25:40.914Z</time></trkpt><trkpt lat="39.95865341628377" lon="8.453569034015313"><ele>8.75</ele><time>2026-04-26T14:25:41.914Z</time></trkpt><trkpt lat="39.95876831624808" lon="8.453559832909074"><ele>9.0</ele><time>2026-04-26T14:25:42.914Z</time></trkpt><trkpt lat="39.95886704669035" lon="8.453561990552894"><ele>9.0</ele><time>2026-04-26T14:25:43.914Z</time></trkpt><trkpt lat="39.958966062433305" lon="8.453560847272287"><ele>9.0</ele><time>2026-04-26T14:25:44.914Z</time></trkpt><trkpt lat="39.95906253578699" lon="8.453556723894916"><ele>9.0</ele><time>2026-04-26T14:25:45.914Z</time></trkpt><trkpt lat="39.95914437656297" lon="8.453571608793734"><ele>9.0</ele><time>2026-04-26T14:25:46.914Z</time></trkpt><trkpt lat="39.9592599805457" lon="8.453577650554395"><ele>9.0</ele><time>2026-04-26T14:25:48.914Z</time></trkpt><trkpt lat="39.95932926717273" lon="8.453574918259067"><ele>9.25</ele><time>2026-04-26T14:25:49.914Z</time></trkpt><trkpt lat="39.95942559154092" lon="8.453571228954761"><ele>9.5</ele><time>2026-04-26T14:25:50.914Z</time></trkpt><trkpt lat="39.959535528448974" lon="8.453578899549642"><ele>9.75</ele><time>2026-04-26T14:25:51.914Z</time></trkpt><trkpt lat="39.95965908727573" lon="8.453584434805851"><ele>10.0</ele><time>2026-04-26T14:25:52.914Z</time></trkpt><trkpt lat="39.959789073061984" lon="8.453611778397592"><ele>10.0</ele><time>2026-04-26T14:25:53.914Z</time></trkpt><trkpt lat="39.959918141923936" lon="8.45363718697279"><ele>10.0</ele><time>2026-04-26T14:25:54.914Z</time></trkpt><trkpt lat="39.96004784119086" lon="8.453664194201519"><ele>10.0</ele><time>2026-04-26T14:25:55.914Z</time></trkpt><trkpt lat="39.960182816660776" lon="8.453690365987612"><ele>10.0</ele><time>2026-04-26T14:25:56.914Z</time></trkpt><trkpt lat="39.96032116006832" lon="8.453715270245192"><ele>10.0</ele><time>2026-04-26T14:25:57.914Z</time></trkpt><trkpt lat="39.96046289662933" lon="8.453740615893906"><ele>10.0</ele><time>2026-04-26T14:25:58.914Z</time></trkpt><trkpt lat="39.96060770595984" lon="8.45376522366115"><ele>10.0</ele><time>2026-04-26T14:25:59.914Z</time></trkpt><trkpt lat="39.96075451575042" lon="8.453786431561221"><ele>10.0</ele><time>2026-04-26T14:26:00.915Z</time></trkpt><trkpt lat="39.96090091886138" lon="8.453810008765476"><ele>9.333333333333334</ele><time>2026-04-26T14:26:01.915Z</time></trkpt><trkpt lat="39.96104802150623" lon="8.453833330420224"><ele>8.666666666666666</ele><time>2026-04-26T14:26:02.915Z</time></trkpt><trkpt lat="39.96119770960595" lon="8.453858667535297"><ele>8.0</ele><time>2026-04-26T14:26:03.915Z</time></trkpt><trkpt lat="39.96134873674164" lon="8.453885639908266"><ele>8.0</ele><time>2026-04-26T14:26:04.915Z</time></trkpt><trkpt lat="39.96150023458145" lon="8.453914584973202"><ele>8.0</ele><time>2026-04-26T14:26:05.915Z</time></trkpt><trkpt lat="39.961653292639824" lon="8.453942009282075"><ele>8.0</ele><time>2026-04-26T14:26:06.915Z</time></trkpt><trkpt lat="39.961801423117805" lon="8.453968191516188"><ele>7.75</ele><time>2026-04-26T14:26:07.915Z</time></trkpt><trkpt lat="39.96194863105688" lon="8.453987567332183"><ele>7.5</ele><time>2026-04-26T14:26:08.915Z</time></trkpt><trkpt lat="39.962096241692734" lon="8.453998933700824"><ele>7.25</ele><time>2026-04-26T14:26:09.915Z</time></trkpt><trkpt lat="39.962244454903846" lon="8.45399863682718"><ele>7.0</ele><time>2026-04-26T14:26:10.915Z</time></trkpt><trkpt lat="39.962395092510995" lon="8.45398908577568"><ele>6.666666666666667</ele><time>2026-04-26T14:26:11.915Z</time></trkpt><trkpt lat="39.96254360965205" lon="8.453969479753647"><ele>6.333333333333334</ele><time>2026-04-26T14:26:12.915Z</time></trkpt><trkpt lat="39.96269372509177" lon="8.453941132784914"><ele>6.0</ele><time>2026-04-26T14:26:13.915Z</time></trkpt><trkpt lat="39.96284432762868" lon="8.45390584733458"><ele>6.0</ele><time>2026-04-26T14:26:14.915Z</time></trkpt><trkpt lat="39.96299800889335" lon="8.453867533339643"><ele>6.0</ele><time>2026-04-26T14:26:15.915Z</time></trkpt><trkpt lat="39.96315318438084" lon="8.453825644941656"><ele>6.0</ele><time>2026-04-26T14:26:16.915Z</time></trkpt><trkpt lat="39.9633087960296" lon="8.453782756071824"><ele>6.666666666666666</ele><time>2026-04-26T14:26:17.915Z</time></trkpt><trkpt lat="39.96346363046923" lon="8.453741338728221"><ele>7.333333333333333</ele><time>2026-04-26T14:26:18.915Z</time></trkpt><trkpt lat="39.96362023334952" lon="8.453699407809347"><ele>8.0</ele><time>2026-04-26T14:26:19.915Z</time></trkpt><trkpt lat="39.963772229917296" lon="8.453657622815117"><ele>8.0</ele><time>2026-04-26T14:26:20.915Z</time></trkpt><trkpt lat="39.96392834638542" lon="8.453614988423686"><ele>8.0</ele><time>2026-04-26T14:26:21.915Z</time></trkpt><trkpt lat="39.96408873428029" lon="8.453573772595302"><ele>8.0</ele><time>2026-04-26T14:26:22.915Z</time></trkpt><trkpt lat="39.964247413347465" lon="8.453535487373582"><ele>7.666666666666666</ele><time>2026-04-26T14:26:23.915Z</time></trkpt><trkpt lat="39.96440913042224" lon="8.453492469060247"><ele>7.333333333333334</ele><time>2026-04-26T14:26:24.915Z</time></trkpt><trkpt lat="39.96455632787092" lon="8.45345412118668"><ele>7.0</ele><time>2026-04-26T14:26:25.915Z</time></trkpt><trkpt lat="39.96470987506652" lon="8.453415016974482"><ele>7.0</ele><time>2026-04-26T14:26:26.915Z</time></trkpt><trkpt lat="39.96486500863455" lon="8.453375567177874"><ele>7.0</ele><time>2026-04-26T14:26:27.915Z</time></trkpt><trkpt lat="39.965021458244294" lon="8.453334746412134"><ele>7.0</ele><time>2026-04-26T14:26:28.915Z</time></trkpt><trkpt lat="39.965183234140504" lon="8.453293224572713"><ele>6.666666666666667</ele><time>2026-04-26T14:26:29.915Z</time></trkpt><trkpt lat="39.96534472982407" lon="8.453251750368683"><ele>6.333333333333334</ele><time>2026-04-26T14:26:30.915Z</time></trkpt><trkpt lat="39.96550815147879" lon="8.453211034237727"><ele>6.0</ele><time>2026-04-26T14:26:31.915Z</time></trkpt><trkpt lat="39.96567090142789" lon="8.453173315513498"><ele>6.0</ele><time>2026-04-26T14:26:32.915Z</time></trkpt><trkpt lat="39.965834099296046" lon="8.453132588310632"><ele>6.0</ele><time>2026-04-26T14:26:33.915Z</time></trkpt><trkpt lat="39.96599888835647" lon="8.453093720719936"><ele>6.0</ele><time>2026-04-26T14:26:34.915Z</time></trkpt><trkpt lat="39.96616528435636" lon="8.453055964229982"><ele>6.333333333333334</ele><time>2026-04-26T14:26:35.915Z</time></trkpt><trkpt lat="39.96633373771893" lon="8.453020414974427"><ele>6.666666666666667</ele><time>2026-04-26T14:26:36.913Z</time></trkpt><trkpt lat="39.966506799563675" lon="8.452989077947652"><ele>7.0</ele><time>2026-04-26T14:26:37.914Z</time></trkpt><trkpt lat="39.96667745327445" lon="8.452965854664754"><ele>7.333333333333334</ele><time>2026-04-26T14:26:38.914Z</time></trkpt><trkpt lat="39.966848428796204" lon="8.45294911561023"><ele>7.666666666666666</ele><time>2026-04-26T14:26:39.914Z</time></trkpt><trkpt lat="39.96702004726125" lon="8.452930263464086"><ele>8.0</ele><time>2026-04-26T14:26:40.914Z</time></trkpt><trkpt lat="39.96718936946516" lon="8.452917142783386"><ele>8.0</ele><time>2026-04-26T14:26:41.914Z</time></trkpt><trkpt lat="39.96735433904297" lon="8.452909867463301"><ele>8.0</ele><time>2026-04-26T14:26:42.914Z</time></trkpt><trkpt lat="39.967522497140735" lon="8.452902847915665"><ele>8.0</ele><time>2026-04-26T14:26:43.914Z</time></trkpt><trkpt lat="39.967693551454154" lon="8.452892041540888"><ele>8.0</ele><time>2026-04-26T14:26:44.914Z</time></trkpt><trkpt lat="39.967862977867114" lon="8.452878233815555"><ele>8.0</ele><time>2026-04-26T14:26:45.914Z</time></trkpt><trkpt lat="39.96803297395151" lon="8.45286737488394"><ele>8.0</ele><time>2026-04-26T14:26:46.914Z</time></trkpt><trkpt lat="39.96820326557422" lon="8.452856549757483"><ele>8.333333333333332</ele><time>2026-04-26T14:26:47.914Z</time></trkpt><trkpt lat="39.96838012282168" lon="8.452843930353321"><ele>8.666666666666666</ele><time>2026-04-26T14:26:48.914Z</time></trkpt><trkpt lat="39.96855995774124" lon="8.452831652612126"><ele>9.0</ele><time>2026-04-26T14:26:49.913Z</time></trkpt><trkpt lat="39.96873909573248" lon="8.452821224494159"><ele>9.0</ele><time>2026-04-26T14:26:50.913Z</time></trkpt><trkpt lat="39.9689208814095" lon="8.452806731397832"><ele>9.0</ele><time>2026-04-26T14:26:51.913Z</time></trkpt><trkpt lat="39.96910080434456" lon="8.452795613048837"><ele>9.0</ele><time>2026-04-26T14:26:52.913Z</time></trkpt><trkpt lat="39.96928382940095" lon="8.452785644044754"><ele>9.0</ele><time>2026-04-26T14:26:53.913Z</time></trkpt><trkpt lat="39.969465707835056" lon="8.452776351777421"><ele>9.0</ele><time>2026-04-26T14:26:54.913Z</time></trkpt><trkpt lat="39.969644946620384" lon="8.452764541591455"><ele>9.0</ele><time>2026-04-26T14:26:55.913Z</time></trkpt><trkpt lat="39.969826627172935" lon="8.452755396955833"><ele>9.0</ele><time>2026-04-26T14:26:56.913Z</time></trkpt><trkpt lat="39.97000431858429" lon="8.452746701691519"><ele>9.0</ele><time>2026-04-26T14:26:57.913Z</time></trkpt><trkpt lat="39.970178964932465" lon="8.452733541767579"><ele>9.0</ele><time>2026-04-26T14:26:58.913Z</time></trkpt><trkpt lat="39.97035701655015" lon="8.452721342883203"><ele>8.666666666666666</ele><time>2026-04-26T14:26:59.913Z</time></trkpt><trkpt lat="39.97053259060709" lon="8.452707480118292"><ele>8.333333333333332</ele><time>2026-04-26T14:27:00.913Z</time></trkpt><trkpt lat="39.97070555192698" lon="8.45269474541533"><ele>8.0</ele><time>2026-04-26T14:27:01.913Z</time></trkpt><trkpt lat="39.970875941929656" lon="8.452681296630102"><ele>8.0</ele><time>2026-04-26T14:27:02.914Z</time></trkpt><trkpt lat="39.971042996077045" lon="8.452665922578648"><ele>8.0</ele><time>2026-04-26T14:27:03.914Z</time></trkpt><trkpt lat="39.97120979272032" lon="8.452649835505353"><ele>8.0</ele><time>2026-04-26T14:27:04.914Z</time></trkpt><trkpt lat="39.97137812396093" lon="8.452633937705615"><ele>8.0</ele><time>2026-04-26T14:27:05.914Z</time></trkpt><trkpt lat="39.971548652616264" lon="8.452617372856885"><ele>8.0</ele><time>2026-04-26T14:27:06.914Z</time></trkpt><trkpt lat="39.971719753037796" lon="8.452603216212463"><ele>8.0</ele><time>2026-04-26T14:27:07.914Z</time></trkpt><trkpt lat="39.97188770000532" lon="8.452589305540227"><ele>8.0</ele><time>2026-04-26T14:27:08.914Z</time></trkpt><trkpt lat="39.97205952873054" lon="8.452577619930015"><ele>8.0</ele><time>2026-04-26T14:27:09.914Z</time></trkpt><trkpt lat="39.97223022015815" lon="8.45256950180056"><ele>8.0</ele><time>2026-04-26T14:27:10.914Z</time></trkpt><trkpt lat="39.97240411376333" lon="8.452563017749155"><ele>8.0</ele><time>2026-04-26T14:27:11.914Z</time></trkpt><trkpt lat="39.97257679581789" lon="8.452552480653479"><ele>8.0</ele><time>2026-04-26T14:27:12.914Z</time></trkpt><trkpt lat="39.97275348111506" lon="8.452538881709334"><ele>8.0</ele><time>2026-04-26T14:27:13.914Z</time></trkpt><trkpt lat="39.97292396303714" lon="8.4525270599775"><ele>8.0</ele><time>2026-04-26T14:27:14.914Z</time></trkpt><trkpt lat="39.973094381871334" lon="8.452516314980416"><ele>8.0</ele><time>2026-04-26T14:27:15.914Z</time></trkpt><trkpt lat="39.97326090343861" lon="8.45249967320019"><ele>8.0</ele><time>2026-04-26T14:27:16.914Z</time></trkpt><trkpt lat="39.973429110564744" lon="8.452491489748333"><ele>8.0</ele><time>2026-04-26T14:27:17.914Z</time></trkpt><trkpt lat="39.97359694137393" lon="8.452485959555121"><ele>8.0</ele><time>2026-04-26T14:27:18.914Z</time></trkpt><trkpt lat="39.97376373739867" lon="8.452494797859558"><ele>8.0</ele><time>2026-04-26T14:27:19.914Z</time></trkpt><trkpt lat="39.973926030080264" lon="8.452518700806474"><ele>8.0</ele><time>2026-04-26T14:27:20.914Z</time></trkpt><trkpt lat="39.974088886923134" lon="8.452559791432487"><ele>8.0</ele><time>2026-04-26T14:27:21.914Z</time></trkpt><trkpt lat="39.974246173163834" lon="8.452619750313342"><ele>8.0</ele><time>2026-04-26T14:27:22.914Z</time></trkpt><trkpt lat="39.974406445346055" lon="8.452682989343332"><ele>7.666666666666666</ele><time>2026-04-26T14:27:23.914Z</time></trkpt><trkpt lat="39.97456438638944" lon="8.45275946492798"><ele>7.333333333333334</ele><time>2026-04-26T14:27:24.914Z</time></trkpt><trkpt lat="39.974722987820606" lon="8.452837024606096"><ele>7.0</ele><time>2026-04-26T14:27:25.914Z</time></trkpt><trkpt lat="39.97488545826526" lon="8.452915564519088"><ele>6.666666666666667</ele><time>2026-04-26T14:27:26.914Z</time></trkpt><trkpt lat="39.975046587070636" lon="8.452994147728415"><ele>6.333333333333334</ele><time>2026-04-26T14:27:27.914Z</time></trkpt><trkpt lat="39.97520895327996" lon="8.453068200179727"><ele>6.0</ele><time>2026-04-26T14:27:28.914Z</time></trkpt><trkpt lat="39.97537122366552" lon="8.453144767495562"><ele>6.0</ele><time>2026-04-26T14:27:29.914Z</time></trkpt><trkpt lat="39.975530396417426" lon="8.453223725072043"><ele>6.0</ele><time>2026-04-26T14:27:30.914Z</time></trkpt><trkpt lat="39.97568854953135" lon="8.45330231196901"><ele>6.0</ele><time>2026-04-26T14:27:31.914Z</time></trkpt><trkpt lat="39.97584667891659" lon="8.453377906310507"><ele>6.666666666666666</ele><time>2026-04-26T14:27:32.914Z</time></trkpt><trkpt lat="39.976010760456965" lon="8.453454186450566"><ele>7.333333333333333</ele><time>2026-04-26T14:27:33.914Z</time></trkpt><trkpt lat="39.97617396804228" lon="8.453531251537555"><ele>8.0</ele><time>2026-04-26T14:27:34.914Z</time></trkpt><trkpt lat="39.9763386585097" lon="8.453607735616547"><ele>8.0</ele><time>2026-04-26T14:27:35.914Z</time></trkpt><trkpt lat="39.9765007353751" lon="8.453683227816532"><ele>8.0</ele><time>2026-04-26T14:27:36.914Z</time></trkpt><trkpt lat="39.97666251975211" lon="8.45376057945564"><ele>8.0</ele><time>2026-04-26T14:27:37.914Z</time></trkpt><trkpt lat="39.97682064531808" lon="8.453834004800937"><ele>8.333333333333332</ele><time>2026-04-26T14:27:38.914Z</time></trkpt><trkpt lat="39.976976363213886" lon="8.453907057164859"><ele>8.666666666666666</ele><time>2026-04-26T14:27:39.914Z</time></trkpt><trkpt lat="39.977132208841184" lon="8.453980962347753"><ele>9.0</ele><time>2026-04-26T14:27:40.914Z</time></trkpt><trkpt lat="39.97728677940644" lon="8.454051882475577"><ele>9.0</ele><time>2026-04-26T14:27:41.914Z</time></trkpt><trkpt lat="39.977445698525315" lon="8.454116687940445"><ele>9.0</ele><time>2026-04-26T14:27:42.914Z</time></trkpt><trkpt lat="39.97760573713418" lon="8.454175267005565"><ele>9.0</ele><time>2026-04-26T14:27:43.914Z</time></trkpt><trkpt lat="39.97776952333882" lon="8.454224237177574"><ele>9.666666666666666</ele><time>2026-04-26T14:27:44.914Z</time></trkpt><trkpt lat="39.97793954416349" lon="8.454259463555347"><ele>10.333333333333332</ele><time>2026-04-26T14:27:45.914Z</time></trkpt><trkpt lat="39.97810825075378" lon="8.454275120342329"><ele>11.0</ele><time>2026-04-26T14:27:46.914Z</time></trkpt><trkpt lat="39.97827683164547" lon="8.454280283951368"><ele>11.0</ele><time>2026-04-26T14:27:47.914Z</time></trkpt><trkpt lat="39.97845063074736" lon="8.45427553539062"><ele>11.0</ele><time>2026-04-26T14:27:48.914Z</time></trkpt><trkpt lat="39.97862602741705" lon="8.454267201805385"><ele>11.0</ele><time>2026-04-26T14:27:49.914Z</time></trkpt><trkpt lat="39.97880042170535" lon="8.454256372159945"><ele>11.0</ele><time>2026-04-26T14:27:50.914Z</time></trkpt><trkpt lat="39.97897648376339" lon="8.45424935061631"><ele>11.0</ele><time>2026-04-26T14:27:51.914Z</time></trkpt><trkpt lat="39.97915557944202" lon="8.454243670169538"><ele>11.0</ele><time>2026-04-26T14:27:52.914Z</time></trkpt><trkpt lat="39.97933021511284" lon="8.454234309777602"><ele>10.333333333333332</ele><time>2026-04-26T14:27:53.914Z</time></trkpt><trkpt lat="39.97950340634985" lon="8.454227992504713"><ele>9.666666666666666</ele><time>2026-04-26T14:27:54.914Z</time></trkpt><trkpt lat="39.97968053104937" lon="8.45422190164328"><ele>9.0</ele><time>2026-04-26T14:27:55.914Z</time></trkpt><trkpt lat="39.979855531772735" lon="8.454211303799715"><ele>8.0</ele><time>2026-04-26T14:27:56.914Z</time></trkpt><trkpt lat="39.980022396204355" lon="8.454203920474907"><ele>7.0</ele><time>2026-04-26T14:27:57.914Z</time></trkpt><trkpt lat="39.9801884243302" lon="8.454199094802837"><ele>6.0</ele><time>2026-04-26T14:27:58.914Z</time></trkpt><trkpt lat="39.98035828473622" lon="8.454187577321242"><ele>6.0</ele><time>2026-04-26T14:27:59.914Z</time></trkpt><trkpt lat="39.98052798596212" lon="8.454181180336331"><ele>6.0</ele><time>2026-04-26T14:28:00.914Z</time></trkpt><trkpt lat="39.98069177653583" lon="8.454175653730802"><ele>6.0</ele><time>2026-04-26T14:28:01.914Z</time></trkpt><trkpt lat="39.98085837209401" lon="8.45417589798413"><ele>6.333333333333334</ele><time>2026-04-26T14:28:02.914Z</time></trkpt><trkpt lat="39.98102221926622" lon="8.454189213255258"><ele>6.666666666666667</ele><time>2026-04-26T14:28:03.914Z</time></trkpt><trkpt lat="39.98118566869008" lon="8.454211887425213"><ele>7.0</ele><time>2026-04-26T14:28:04.914Z</time></trkpt><trkpt lat="39.98135135013582" lon="8.454244628813793"><ele>7.0</ele><time>2026-04-26T14:28:05.914Z</time></trkpt><trkpt lat="39.981519258474066" lon="8.454283561719427"><ele>7.0</ele><time>2026-04-26T14:28:06.914Z</time></trkpt><trkpt lat="39.98168582107635" lon="8.454323307795159"><ele>7.0</ele><time>2026-04-26T14:28:07.915Z</time></trkpt><trkpt lat="39.98185276298174" lon="8.454366253027175"><ele>7.0</ele><time>2026-04-26T14:28:08.915Z</time></trkpt><trkpt lat="39.98201846112974" lon="8.454411664519563"><ele>7.0</ele><time>2026-04-26T14:28:09.915Z</time></trkpt><trkpt lat="39.98218596387523" lon="8.454455221172987"><ele>7.0</ele><time>2026-04-26T14:28:10.915Z</time></trkpt><trkpt lat="39.98234995157741" lon="8.45449745705139"><ele>7.0</ele><time>2026-04-26T14:28:11.915Z</time></trkpt><trkpt lat="39.98251470734937" lon="8.454540424132327"><ele>7.0</ele><time>2026-04-26T14:28:12.915Z</time></trkpt><trkpt lat="39.982679738601284" lon="8.454585090056371"><ele>7.0</ele><time>2026-04-26T14:28:13.915Z</time></trkpt><trkpt lat="39.98284202865359" lon="8.454624977462602"><ele>7.0</ele><time>2026-04-26T14:28:14.915Z</time></trkpt><trkpt lat="39.98300435050468" lon="8.454663578545992"><ele>7.0</ele><time>2026-04-26T14:28:15.915Z</time></trkpt><trkpt lat="39.98316392184151" lon="8.454702860437434"><ele>7.0</ele><time>2026-04-26T14:28:16.915Z</time></trkpt><trkpt lat="39.98332245348068" lon="8.454740648255266"><ele>6.666666666666667</ele><time>2026-04-26T14:28:17.915Z</time></trkpt><trkpt lat="39.98348089212807" lon="8.454781248583107"><ele>6.333333333333334</ele><time>2026-04-26T14:28:18.915Z</time></trkpt><trkpt lat="39.98364628083199" lon="8.454823629310733"><ele>6.0</ele><time>2026-04-26T14:28:19.915Z</time></trkpt><trkpt lat="39.983813219682595" lon="8.454864348144163"><ele>6.0</ele><time>2026-04-26T14:28:20.915Z</time></trkpt><trkpt lat="39.98396895066148" lon="8.454897289785235"><ele>6.0</ele><time>2026-04-26T14:28:21.915Z</time></trkpt><trkpt lat="39.984111009715576" lon="8.454926428072401"><ele>6.0</ele><time>2026-04-26T14:28:22.915Z</time></trkpt><trkpt lat="39.9842447819453" lon="8.454959632909056"><ele>6.0</ele><time>2026-04-26T14:28:23.915Z</time></trkpt><trkpt lat="39.9843676480959" lon="8.454987446817684"><ele>6.0</ele><time>2026-04-26T14:28:24.915Z</time></trkpt><trkpt lat="39.98448229156538" lon="8.45500423010985"><ele>6.0</ele><time>2026-04-26T14:28:25.915Z</time></trkpt><trkpt lat="39.98458155157186" lon="8.455037266802755"><ele>6.0</ele><time>2026-04-26T14:28:26.915Z</time></trkpt><trkpt lat="39.984669311210546" lon="8.45506283475434"><ele>6.0</ele><time>2026-04-26T14:28:27.915Z</time></trkpt><trkpt lat="39.98475179845585" lon="8.455083927312051"><ele>6.0</ele><time>2026-04-26T14:28:28.915Z</time></trkpt><trkpt lat="39.98482252673249" lon="8.455083927310945"><ele>6.0</ele><time>2026-04-26T14:28:29.915Z</time></trkpt><trkpt lat="39.98499054024388" lon="8.455005613771762"><ele>6.0</ele><time>2026-04-26T14:28:31.915Z</time></trkpt><trkpt lat="39.98504150236079" lon="8.454894783725225"><ele>6.0</ele><time>2026-04-26T14:28:33.915Z</time></trkpt><trkpt lat="39.98507978142638" lon="8.454788187721405"><ele>6.0</ele><time>2026-04-26T14:28:35.915Z</time></trkpt><trkpt lat="39.98508147757562" lon="8.454679378203354"><ele>6.4</ele><time>2026-04-26T14:28:36.915Z</time></trkpt><trkpt lat="39.98504921179355" lon="8.454524782434508"><ele>6.8</ele><time>2026-04-26T14:28:38.915Z</time></trkpt><trkpt lat="39.98502684590912" lon="8.454417807874927"><ele>7.200000000000001</ele><time>2026-04-26T14:28:39.915Z</time></trkpt><trkpt lat="39.9850023280115" lon="8.454300540514778"><ele>7.6000000000000005</ele><time>2026-04-26T14:28:40.915Z</time></trkpt><trkpt lat="39.98497298378398" lon="8.454160189403899"><ele>8.0</ele><time>2026-04-26T14:28:41.915Z</time></trkpt><trkpt lat="39.984941946173876" lon="8.454011738433355"><ele>8.0</ele><time>2026-04-26T14:28:42.914Z</time></trkpt><trkpt lat="39.984910065349055" lon="8.453859254833917"><ele>8.0</ele><time>2026-04-26T14:28:43.914Z</time></trkpt><trkpt lat="39.98487700481699" lon="8.45370273258054"><ele>8.0</ele><time>2026-04-26T14:28:44.914Z</time></trkpt><trkpt lat="39.98484131018228" lon="8.453534307281966"><ele>8.0</ele><time>2026-04-26T14:28:45.915Z</time></trkpt><trkpt lat="39.98480394999471" lon="8.453358023254278"><ele>8.5</ele><time>2026-04-26T14:28:46.914Z</time></trkpt><trkpt lat="39.9847668414162" lon="8.453177572693669"><ele>9.0</ele><time>2026-04-26T14:28:47.914Z</time></trkpt><trkpt lat="39.98473118883548" lon="8.452998474499896"><ele>9.5</ele><time>2026-04-26T14:28:48.915Z</time></trkpt><trkpt lat="39.98469602639834" lon="8.452817204902173"><ele>10.0</ele><time>2026-04-26T14:28:49.914Z</time></trkpt><trkpt lat="39.984660501388" lon="8.452631281654853"><ele>10.75</ele><time>2026-04-26T14:28:50.914Z</time></trkpt><trkpt lat="39.98462884080402" lon="8.452440430928238"><ele>11.5</ele><time>2026-04-26T14:28:51.914Z</time></trkpt><trkpt lat="39.984608302150114" lon="8.452247318460397"><ele>12.25</ele><time>2026-04-26T14:28:52.914Z</time></trkpt><trkpt lat="39.98460034701853" lon="8.452059270029432"><ele>13.0</ele><time>2026-04-26T14:28:53.914Z</time></trkpt><trkpt lat="39.9846072632484" lon="8.451867111944878"><ele>13.0</ele><time>2026-04-26T14:28:54.915Z</time></trkpt><trkpt lat="39.98460945685601" lon="8.451670495088585"><ele>13.0</ele><time>2026-04-26T14:28:55.915Z</time></trkpt><trkpt lat="39.98464433383196" lon="8.451482291806181"><ele>13.0</ele><time>2026-04-26T14:28:56.915Z</time></trkpt><trkpt lat="39.98469254463495" lon="8.45129988190824"><ele>13.0</ele><time>2026-04-26T14:28:57.915Z</time></trkpt><trkpt lat="39.98474905532032" lon="8.451116728428465"><ele>12.333333333333332</ele><time>2026-04-26T14:28:58.915Z</time></trkpt><trkpt lat="39.98481854512174" lon="8.450951093221445"><ele>11.666666666666666</ele><time>2026-04-26T14:28:59.915Z</time></trkpt><trkpt lat="39.984900867688786" lon="8.450789107243242"><ele>11.0</ele><time>2026-04-26T14:29:00.915Z</time></trkpt><trkpt lat="39.98499609096036" lon="8.450625309518644"><ele>11.0</ele><time>2026-04-26T14:29:01.915Z</time></trkpt><trkpt lat="39.98509693088168" lon="8.450460938675985"><ele>11.0</ele><time>2026-04-26T14:29:02.915Z</time></trkpt><trkpt lat="39.98519659668518" lon="8.450298536936872"><ele>11.0</ele><time>2026-04-26T14:29:03.915Z</time></trkpt><trkpt lat="39.985298617421165" lon="8.450134959676367"><ele>10.333333333333332</ele><time>2026-04-26T14:29:04.915Z</time></trkpt><trkpt lat="39.98541675202206" lon="8.44998520088695"><ele>9.666666666666666</ele><time>2026-04-26T14:29:05.915Z</time></trkpt><trkpt lat="39.98552590028303" lon="8.449818198997635"><ele>9.0</ele><time>2026-04-26T14:29:06.915Z</time></trkpt><trkpt lat="39.985622134452086" lon="8.449638342658618"><ele>8.666666666666666</ele><time>2026-04-26T14:29:07.915Z</time></trkpt><trkpt lat="39.985742448129585" lon="8.449486305402418"><ele>8.333333333333332</ele><time>2026-04-26T14:29:08.915Z</time></trkpt><trkpt lat="39.98584037573063" lon="8.449300563021659"><ele>8.0</ele><time>2026-04-26T14:29:09.915Z</time></trkpt><trkpt lat="39.98594934192493" lon="8.449123175751488"><ele>8.0</ele><time>2026-04-26T14:29:10.915Z</time></trkpt><trkpt lat="39.98604728383179" lon="8.448942571235342"><ele>8.0</ele><time>2026-04-26T14:29:11.915Z</time></trkpt><trkpt lat="39.98613080030549" lon="8.448747355672133"><ele>8.0</ele><time>2026-04-26T14:29:12.915Z</time></trkpt><trkpt lat="39.98620282232541" lon="8.448545506938567"><ele>7.666666666666666</ele><time>2026-04-26T14:29:13.915Z</time></trkpt><trkpt lat="39.98625956403079" lon="8.448339030948846"><ele>7.333333333333334</ele><time>2026-04-26T14:29:14.915Z</time></trkpt><trkpt lat="39.98629937907518" lon="8.448122776545546"><ele>7.0</ele><time>2026-04-26T14:29:15.915Z</time></trkpt><trkpt lat="39.98632549315206" lon="8.447897141253025"><ele>7.0</ele><time>2026-04-26T14:29:16.915Z</time></trkpt><trkpt lat="39.98633720396011" lon="8.447668322460556"><ele>7.0</ele><time>2026-04-26T14:29:17.915Z</time></trkpt><trkpt lat="39.98633043500177" lon="8.447439373594248"><ele>7.0</ele><time>2026-04-26T14:29:18.915Z</time></trkpt><trkpt lat="39.98630845463062" lon="8.447207714440127"><ele>6.666666666666667</ele><time>2026-04-26T14:29:19.915Z</time></trkpt><trkpt lat="39.98627485127595" lon="8.44697925445315"><ele>6.333333333333334</ele><time>2026-04-26T14:29:20.915Z</time></trkpt><trkpt lat="39.98624148121549" lon="8.446751300169021"><ele>6.0</ele><time>2026-04-26T14:29:21.915Z</time></trkpt><trkpt lat="39.98620638821984" lon="8.446519869755072"><ele>6.0</ele><time>2026-04-26T14:29:22.915Z</time></trkpt><trkpt lat="39.986171788435676" lon="8.446290178512852"><ele>6.0</ele><time>2026-04-26T14:29:23.915Z</time></trkpt><trkpt lat="39.98614145822471" lon="8.446061000454295"><ele>6.0</ele><time>2026-04-26T14:29:24.915Z</time></trkpt><trkpt lat="39.98611459553368" lon="8.445828977897833"><ele>6.0</ele><time>2026-04-26T14:29:25.915Z</time></trkpt><trkpt lat="39.986093970214455" lon="8.445598483969164"><ele>6.0</ele><time>2026-04-26T14:29:26.915Z</time></trkpt><trkpt lat="39.986083372512695" lon="8.445366127272445"><ele>6.0</ele><time>2026-04-26T14:29:27.915Z</time></trkpt><trkpt lat="39.98607971174329" lon="8.445134196093736"><ele>5.666666666666667</ele><time>2026-04-26T14:29:28.915Z</time></trkpt><trkpt lat="39.98608489721788" lon="8.444904280401598"><ele>5.333333333333334</ele><time>2026-04-26T14:29:29.915Z</time></trkpt><trkpt lat="39.98610333276016" lon="8.444675278758586"><ele>5.0</ele><time>2026-04-26T14:29:30.915Z</time></trkpt><trkpt lat="39.98612555083565" lon="8.444440522378235"><ele>5.0</ele><time>2026-04-26T14:29:31.915Z</time></trkpt><trkpt lat="39.98615756983139" lon="8.444206611323331"><ele>5.0</ele><time>2026-04-26T14:29:32.915Z</time></trkpt><trkpt lat="39.986196874535146" lon="8.443979374574218"><ele>5.0</ele><time>2026-04-26T14:29:33.915Z</time></trkpt><trkpt lat="39.98623709314253" lon="8.44374950141615"><ele>5.0</ele><time>2026-04-26T14:29:34.915Z</time></trkpt><trkpt lat="39.986281320638675" lon="8.44351980849733"><ele>5.0</ele><time>2026-04-26T14:29:35.916Z</time></trkpt><trkpt lat="39.986319459152625" lon="8.443283405479493"><ele>5.0</ele><time>2026-04-26T14:29:36.916Z</time></trkpt><trkpt lat="39.98636477884542" lon="8.443048692426965"><ele>5.0</ele><time>2026-04-26T14:29:37.916Z</time></trkpt><trkpt lat="39.98640898815465" lon="8.442815853938702"><ele>5.0</ele><time>2026-04-26T14:29:38.916Z</time></trkpt><trkpt lat="39.98645333636681" lon="8.442576282978614"><ele>5.0</ele><time>2026-04-26T14:29:39.916Z</time></trkpt><trkpt lat="39.98649674368651" lon="8.442333218671791"><ele>5.0</ele><time>2026-04-26T14:29:40.916Z</time></trkpt><trkpt lat="39.986539828897925" lon="8.44208159352455"><ele>5.0</ele><time>2026-04-26T14:29:41.916Z</time></trkpt><trkpt lat="39.986585913552695" lon="8.441829170035325"><ele>5.0</ele><time>2026-04-26T14:29:42.916Z</time></trkpt><trkpt lat="39.98663298779678" lon="8.441577064351527"><ele>5.333333333333334</ele><time>2026-04-26T14:29:43.916Z</time></trkpt><trkpt lat="39.98667790792389" lon="8.441326701689444"><ele>5.666666666666667</ele><time>2026-04-26T14:29:44.916Z</time></trkpt><trkpt lat="39.98672030949077" lon="8.441078642492132"><ele>6.0</ele><time>2026-04-26T14:29:45.916Z</time></trkpt><trkpt lat="39.98676237346959" lon="8.440822524729716"><ele>6.0</ele><time>2026-04-26T14:29:46.916Z</time></trkpt><trkpt lat="39.98680911567784" lon="8.440564108242237"><ele>6.0</ele><time>2026-04-26T14:29:47.916Z</time></trkpt><trkpt lat="39.986855265766955" lon="8.44032476660675"><ele>6.0</ele><time>2026-04-26T14:29:48.916Z</time></trkpt><trkpt lat="39.98690143497413" lon="8.440099544300045"><ele>5.666666666666667</ele><time>2026-04-26T14:29:49.916Z</time></trkpt><trkpt lat="39.98694788855354" lon="8.439872899664312"><ele>5.333333333333334</ele><time>2026-04-26T14:29:50.916Z</time></trkpt><trkpt lat="39.98700506767956" lon="8.439644925715521"><ele>5.0</ele><time>2026-04-26T14:29:51.916Z</time></trkpt><trkpt lat="39.98706200266073" lon="8.43942350954538"><ele>4.666666666666667</ele><time>2026-04-26T14:29:52.916Z</time></trkpt><trkpt lat="39.98713649237162" lon="8.439207287472133"><ele>4.333333333333333</ele><time>2026-04-26T14:29:53.916Z</time></trkpt><trkpt lat="39.98719028031045" lon="8.438984926220387"><ele>4.0</ele><time>2026-04-26T14:29:54.916Z</time></trkpt><trkpt lat="39.98726648651218" lon="8.438787776716822"><ele>4.0</ele><time>2026-04-26T14:29:55.916Z</time></trkpt><trkpt lat="39.98733536091881" lon="8.43858097417916"><ele>4.0</ele><time>2026-04-26T14:29:56.916Z</time></trkpt><trkpt lat="39.98739762370789" lon="8.438368399172782"><ele>4.0</ele><time>2026-04-26T14:29:57.916Z</time></trkpt><trkpt lat="39.98746489964171" lon="8.438158380177"><ele>4.0</ele><time>2026-04-26T14:29:58.916Z</time></trkpt><trkpt lat="39.98753393940487" lon="8.437947296169657"><ele>4.0</ele><time>2026-04-26T14:29:59.916Z</time></trkpt><trkpt lat="39.987602551635696" lon="8.43773223532426"><ele>4.0</ele><time>2026-04-26T14:30:00.916Z</time></trkpt><trkpt lat="39.98767006514301" lon="8.437516346887394"><ele>4.0</ele><time>2026-04-26T14:30:01.916Z</time></trkpt><trkpt lat="39.98773683578527" lon="8.437297536789199"><ele>4.0</ele><time>2026-04-26T14:30:02.916Z</time></trkpt><trkpt lat="39.987800327740466" lon="8.437071095294876"><ele>4.0</ele><time>2026-04-26T14:30:03.916Z</time></trkpt><trkpt lat="39.98786020395888" lon="8.436834328776056"><ele>3.333333333333333</ele><time>2026-04-26T14:30:04.916Z</time></trkpt><trkpt lat="39.98791555017716" lon="8.436593820559386"><ele>2.6666666666666665</ele><time>2026-04-26T14:30:05.916Z</time></trkpt><trkpt lat="39.987961188000654" lon="8.436356386832573"><ele>2.0</ele><time>2026-04-26T14:30:06.916Z</time></trkpt><trkpt lat="39.98800277809563" lon="8.43611838987117"><ele>2.0</ele><time>2026-04-26T14:30:07.916Z</time></trkpt><trkpt lat="39.988043245866095" lon="8.435875333883635"><ele>2.0</ele><time>2026-04-26T14:30:08.916Z</time></trkpt><trkpt lat="39.98808205302466" lon="8.4356351596913"><ele>2.0</ele><time>2026-04-26T14:30:09.916Z</time></trkpt><trkpt lat="39.988119324696704" lon="8.435394534877032"><ele>2.6666666666666665</ele><time>2026-04-26T14:30:10.916Z</time></trkpt><trkpt lat="39.988159389385984" lon="8.435159062820638"><ele>3.333333333333333</ele><time>2026-04-26T14:30:11.916Z</time></trkpt><trkpt lat="39.988200414786014" lon="8.434922090547031"><ele>4.0</ele><time>2026-04-26T14:30:12.916Z</time></trkpt><trkpt lat="39.98823972638637" lon="8.434686848990271"><ele>4.0</ele><time>2026-04-26T14:30:13.916Z</time></trkpt><trkpt lat="39.98828326596353" lon="8.43444683864435"><ele>4.0</ele><time>2026-04-26T14:30:14.916Z</time></trkpt><trkpt lat="39.988325772018904" lon="8.434207385857984"><ele>4.0</ele><time>2026-04-26T14:30:15.916Z</time></trkpt><trkpt lat="39.988366550888806" lon="8.43396907545501"><ele>4.0</ele><time>2026-04-26T14:30:16.916Z</time></trkpt><trkpt lat="39.98840500620324" lon="8.433728738634462"><ele>4.0</ele><time>2026-04-26T14:30:17.916Z</time></trkpt><trkpt lat="39.988442110509105" lon="8.433492268987681"><ele>4.0</ele><time>2026-04-26T14:30:18.916Z</time></trkpt><trkpt lat="39.98847693288483" lon="8.433253918765745"><ele>4.0</ele><time>2026-04-26T14:30:19.916Z</time></trkpt><trkpt lat="39.988507583387126" lon="8.433010630873385"><ele>4.0</ele><time>2026-04-26T14:30:20.916Z</time></trkpt><trkpt lat="39.98853231185174" lon="8.43276587485174"><ele>4.0</ele><time>2026-04-26T14:30:21.916Z</time></trkpt><trkpt lat="39.988554981218535" lon="8.432515607147245"><ele>3.6666666666666665</ele><time>2026-04-26T14:30:22.916Z</time></trkpt><trkpt lat="39.98857682964224" lon="8.432263564342705"><ele>3.333333333333333</ele><time>2026-04-26T14:30:23.916Z</time></trkpt><trkpt lat="39.98860005882125" lon="8.432014168584637"><ele>3.0</ele><time>2026-04-26T14:30:24.916Z</time></trkpt><trkpt lat="39.98862275690698" lon="8.431765929824426"><ele>3.0</ele><time>2026-04-26T14:30:25.916Z</time></trkpt><trkpt lat="39.988645256853" lon="8.431519160028138"><ele>3.0</ele><time>2026-04-26T14:30:26.916Z</time></trkpt><trkpt lat="39.988669897005614" lon="8.431277843268676"><ele>3.0</ele><time>2026-04-26T14:30:27.916Z</time></trkpt><trkpt lat="39.9886976549394" lon="8.431034261783706"><ele>3.333333333333333</ele><time>2026-04-26T14:30:28.916Z</time></trkpt><trkpt lat="39.988724543280796" lon="8.430787701054415"><ele>3.6666666666666665</ele><time>2026-04-26T14:30:29.916Z</time></trkpt><trkpt lat="39.988746340520045" lon="8.430548137132178"><ele>4.0</ele><time>2026-04-26T14:30:30.916Z</time></trkpt><trkpt lat="39.98876698205756" lon="8.430323093831824"><ele>4.25</ele><time>2026-04-26T14:30:31.916Z</time></trkpt><trkpt lat="39.98879191319985" lon="8.430120111798823"><ele>4.5</ele><time>2026-04-26T14:30:32.916Z</time></trkpt><trkpt lat="39.988823662984544" lon="8.429938295035939"><ele>4.75</ele><time>2026-04-26T14:30:33.916Z</time></trkpt><trkpt lat="39.98885704432378" lon="8.429787097431518"><ele>5.0</ele><time>2026-04-26T14:30:34.916Z</time></trkpt><trkpt lat="39.988891863376935" lon="8.429650847759117"><ele>5.0</ele><time>2026-04-26T14:30:35.916Z</time></trkpt><trkpt lat="39.98893201951329" lon="8.429538403821986"><ele>5.0</ele><time>2026-04-26T14:30:36.916Z</time></trkpt><trkpt lat="39.98897590900621" lon="8.429437784467968"><ele>5.0</ele><time>2026-04-26T14:30:37.916Z</time></trkpt><trkpt lat="39.989018724822664" lon="8.429341011019833"><ele>5.0</ele><time>2026-04-26T14:30:38.916Z</time></trkpt><trkpt lat="39.989073690678296" lon="8.429244609875173"><ele>5.0</ele><time>2026-04-26T14:30:39.917Z</time></trkpt><trkpt lat="39.98912727243021" lon="8.429142680958396"><ele>5.0</ele><time>2026-04-26T14:30:40.917Z</time></trkpt><trkpt lat="39.98917880551779" lon="8.429042123713657"><ele>5.0</ele><time>2026-04-26T14:30:41.917Z</time></trkpt><trkpt lat="39.98922658579152" lon="8.428947479602122"><ele>5.0</ele><time>2026-04-26T14:30:42.917Z</time></trkpt><trkpt lat="39.98927233009705" lon="8.428856105358129"><ele>5.0</ele><time>2026-04-26T14:30:43.917Z</time></trkpt><trkpt lat="39.98931969972391" lon="8.428768234007453"><ele>5.0</ele><time>2026-04-26T14:30:44.917Z</time></trkpt><trkpt lat="39.98938006470596" lon="8.428705924930474"><ele>5.0</ele><time>2026-04-26T14:30:45.917Z</time></trkpt><trkpt lat="39.98942697048211" lon="8.428629986835208"><ele>5.0</ele><time>2026-04-26T14:30:46.917Z</time></trkpt><trkpt lat="39.9894807158212" lon="8.428546651141378"><ele>5.0</ele><time>2026-04-26T14:30:47.917Z</time></trkpt><trkpt lat="39.98954287246411" lon="8.428457081668855"><ele>5.0</ele><time>2026-04-26T14:30:48.916Z</time></trkpt><trkpt lat="39.98960780292203" lon="8.428358411163993"><ele>5.0</ele><time>2026-04-26T14:30:49.915Z</time></trkpt><trkpt lat="39.98967008074997" lon="8.428254548012758"><ele>5.0</ele><time>2026-04-26T14:30:50.915Z</time></trkpt><trkpt lat="39.98973302999035" lon="8.4281378924012"><ele>5.0</ele><time>2026-04-26T14:30:51.916Z</time></trkpt><trkpt lat="39.98980041829733" lon="8.428017521157082"><ele>5.0</ele><time>2026-04-26T14:30:52.915Z</time></trkpt><trkpt lat="39.98987284068416" lon="8.42789512866401"><ele>5.0</ele><time>2026-04-26T14:30:53.915Z</time></trkpt><trkpt lat="39.98995187013374" lon="8.427768378245586"><ele>5.0</ele><time>2026-04-26T14:30:54.915Z</time></trkpt><trkpt lat="39.99003811810611" lon="8.427633612277463"><ele>5.0</ele><time>2026-04-26T14:30:55.916Z</time></trkpt><trkpt lat="39.990127400916585" lon="8.427493956468393"><ele>5.0</ele><time>2026-04-26T14:30:56.916Z</time></trkpt><trkpt lat="39.99022149413416" lon="8.42734709146179"><ele>5.0</ele><time>2026-04-26T14:30:57.915Z</time></trkpt><trkpt lat="39.990309831285735" lon="8.427196721448837"><ele>5.0</ele><time>2026-04-26T14:30:58.915Z</time></trkpt><trkpt lat="39.9903984916637" lon="8.42704609732691"><ele>5.0</ele><time>2026-04-26T14:30:59.915Z</time></trkpt><trkpt lat="39.990487429260234" lon="8.426890982118966"><ele>5.0</ele><time>2026-04-26T14:31:00.915Z</time></trkpt><trkpt lat="39.99057433356681" lon="8.426726362346953"><ele>5.0</ele><time>2026-04-26T14:31:01.916Z</time></trkpt><trkpt lat="39.99066646213924" lon="8.426559942316526"><ele>5.0</ele><time>2026-04-26T14:31:02.916Z</time></trkpt><trkpt lat="39.990756280992244" lon="8.426392089790998"><ele>5.0</ele><time>2026-04-26T14:31:03.916Z</time></trkpt><trkpt lat="39.9908423189054" lon="8.426224366900387"><ele>5.0</ele><time>2026-04-26T14:31:04.916Z</time></trkpt><trkpt lat="39.99093134552201" lon="8.426056630122195"><ele>4.666666666666667</ele><time>2026-04-26T14:31:05.916Z</time></trkpt><trkpt lat="39.9910265014003" lon="8.425887354190326"><ele>4.333333333333333</ele><time>2026-04-26T14:31:06.916Z</time></trkpt><trkpt lat="39.99112383782685" lon="8.425715102429015"><ele>4.0</ele><time>2026-04-26T14:31:07.916Z</time></trkpt><trkpt lat="39.991218822589744" lon="8.425540028501684"><ele>3.6666666666666665</ele><time>2026-04-26T14:31:08.916Z</time></trkpt><trkpt lat="39.991310064265974" lon="8.425363490117476"><ele>3.333333333333333</ele><time>2026-04-26T14:31:09.916Z</time></trkpt><trkpt lat="39.99140188528678" lon="8.425186741049718"><ele>3.0</ele><time>2026-04-26T14:31:10.916Z</time></trkpt><trkpt lat="39.99149748334506" lon="8.425005998201597"><ele>3.0</ele><time>2026-04-26T14:31:11.916Z</time></trkpt><trkpt lat="39.99159551707218" lon="8.424826725721507"><ele>3.0</ele><time>2026-04-26T14:31:12.916Z</time></trkpt><trkpt lat="39.99169514851806" lon="8.424658830219457"><ele>3.0</ele><time>2026-04-26T14:31:13.916Z</time></trkpt><trkpt lat="39.99179803587158" lon="8.424496838751597"><ele>3.333333333333333</ele><time>2026-04-26T14:31:14.916Z</time></trkpt><trkpt lat="39.99190951110534" lon="8.424346453393358"><ele>3.6666666666666665</ele><time>2026-04-26T14:31:15.916Z</time></trkpt><trkpt lat="39.992028670819465" lon="8.424211698688643"><ele>4.0</ele><time>2026-04-26T14:31:16.916Z</time></trkpt><trkpt lat="39.992158976755505" lon="8.424088542028832"><ele>4.0</ele><time>2026-04-26T14:31:17.916Z</time></trkpt><trkpt lat="39.992298045773175" lon="8.423975844801914"><ele>4.0</ele><time>2026-04-26T14:31:18.916Z</time></trkpt><trkpt lat="39.99244434291167" lon="8.423872437636241"><ele>4.0</ele><time>2026-04-26T14:31:19.916Z</time></trkpt><trkpt lat="39.9925954447665" lon="8.423773122829086"><ele>4.0</ele><time>2026-04-26T14:31:20.916Z</time></trkpt><trkpt lat="39.992747835251684" lon="8.423671302245067"><ele>4.0</ele><time>2026-04-26T14:31:21.916Z</time></trkpt><trkpt lat="39.992896863323374" lon="8.423572420725613"><ele>4.0</ele><time>2026-04-26T14:31:22.916Z</time></trkpt><trkpt lat="39.99304255166809" lon="8.423476849876787"><ele>4.0</ele><time>2026-04-26T14:31:23.916Z</time></trkpt><trkpt lat="39.99318711547382" lon="8.423383453244314"><ele>4.0</ele><time>2026-04-26T14:31:24.916Z</time></trkpt><trkpt lat="39.993327343447554" lon="8.423293160113907"><ele>4.0</ele><time>2026-04-26T14:31:25.916Z</time></trkpt><trkpt lat="39.99345602477945" lon="8.423205284601623"><ele>4.0</ele><time>2026-04-26T14:31:26.916Z</time></trkpt><trkpt lat="39.99356922110744" lon="8.423118844137692"><ele>4.0</ele><time>2026-04-26T14:31:27.916Z</time></trkpt><trkpt lat="39.993667734233306" lon="8.423076675349046"><ele>4.0</ele><time>2026-04-26T14:31:28.916Z</time></trkpt><trkpt lat="39.99373793632504" lon="8.423032033504391"><ele>4.0</ele><time>2026-04-26T14:31:29.916Z</time></trkpt><trkpt lat="39.99404894186913" lon="8.422824923909731"><ele>4.333333333333333</ele><time>2026-04-26T14:31:30.916Z</time></trkpt><trkpt lat="39.99419176275993" lon="8.422735639280152"><ele>4.666666666666667</ele><time>2026-04-26T14:31:31.916Z</time></trkpt><trkpt lat="39.99433665394814" lon="8.422644705377301"><ele>5.0</ele><time>2026-04-26T14:31:32.916Z</time></trkpt><trkpt lat="39.99448196127577" lon="8.42255615577939"><ele>5.0</ele><time>2026-04-26T14:31:33.916Z</time></trkpt><trkpt lat="39.994626264587495" lon="8.42246630857379"><ele>5.0</ele><time>2026-04-26T14:31:34.916Z</time></trkpt><trkpt lat="39.99477382878157" lon="8.422372485776327"><ele>5.0</ele><time>2026-04-26T14:31:35.916Z</time></trkpt><trkpt lat="39.99492014616625" lon="8.422279324653049"><ele>5.0</ele><time>2026-04-26T14:31:36.916Z</time></trkpt><trkpt lat="39.99506696142227" lon="8.422186314608423"><ele>5.0</ele><time>2026-04-26T14:31:37.916Z</time></trkpt><trkpt lat="39.9952147299577" lon="8.422096432419153"><ele>5.0</ele><time>2026-04-26T14:31:38.916Z</time></trkpt><trkpt lat="39.99536153839733" lon="8.422006100571423"><ele>5.333333333333334</ele><time>2026-04-26T14:31:39.916Z</time></trkpt><trkpt lat="39.995509623895806" lon="8.421913119213407"><ele>5.666666666666667</ele><time>2026-04-26T14:31:40.916Z</time></trkpt><trkpt lat="39.99565922823901" lon="8.421819422516355"><ele>6.0</ele><time>2026-04-26T14:31:41.916Z</time></trkpt><trkpt lat="39.99580786682901" lon="8.421725458246938"><ele>6.0</ele><time>2026-04-26T14:31:42.916Z</time></trkpt><trkpt lat="39.995956563758504" lon="8.421630999675658"><ele>6.0</ele><time>2026-04-26T14:31:43.916Z</time></trkpt><trkpt lat="39.99610156115408" lon="8.421536023171395"><ele>6.0</ele><time>2026-04-26T14:31:44.916Z</time></trkpt><trkpt lat="39.996240582282255" lon="8.421439287665255"><ele>6.0</ele><time>2026-04-26T14:31:45.916Z</time></trkpt><trkpt lat="39.996376292758534" lon="8.42133766631336"><ele>6.0</ele><time>2026-04-26T14:31:46.917Z</time></trkpt><trkpt lat="39.99650712591485" lon="8.421231856376266"><ele>6.0</ele><time>2026-04-26T14:31:47.917Z</time></trkpt><trkpt lat="39.99662326648311" lon="8.421119499322243"><ele>6.199999999999999</ele><time>2026-04-26T14:31:48.917Z</time></trkpt><trkpt lat="39.996720998192494" lon="8.421014707927378"><ele>6.3999999999999995</ele><time>2026-04-26T14:31:49.917Z</time></trkpt><trkpt lat="39.99679926122461" lon="8.420923042801627"><ele>6.6</ele><time>2026-04-26T14:31:50.917Z</time></trkpt><trkpt lat="39.996857322855924" lon="8.420846370893639"><ele>6.8</ele><time>2026-04-26T14:31:51.917Z</time></trkpt><trkpt lat="39.99689855969837" lon="8.42076959918987"><ele>7.0</ele><time>2026-04-26T14:31:53.917Z</time></trkpt><trkpt lat="39.996954980505805" lon="8.420705037809432"><ele>7.0</ele><time>2026-04-26T14:32:40.917Z</time></trkpt><trkpt lat="39.997039536746854" lon="8.420583336766585"><ele>6.999999999999999</ele><time>2026-04-26T14:32:42.917Z</time></trkpt><trkpt lat="39.99709497567017" lon="8.420506500628418"><ele>6.999999999999999</ele><time>2026-04-26T14:32:43.917Z</time></trkpt><trkpt lat="39.99716216807572" lon="8.420413703174257"><ele>7.0</ele><time>2026-04-26T14:32:44.917Z</time></trkpt><trkpt lat="39.99722954515651" lon="8.420319435394507"><ele>7.0</ele><time>2026-04-26T14:32:45.917Z</time></trkpt><trkpt lat="39.99730657205782" lon="8.420210624096397"><ele>7.5</ele><time>2026-04-26T14:32:46.917Z</time></trkpt><trkpt lat="39.997391714825994" lon="8.420092333034791"><ele>8.0</ele><time>2026-04-26T14:32:47.917Z</time></trkpt><trkpt lat="39.99747846278342" lon="8.419970961616299"><ele>8.5</ele><time>2026-04-26T14:32:48.917Z</time></trkpt><trkpt lat="39.99756854168872" lon="8.419839950439123"><ele>9.0</ele><time>2026-04-26T14:32:49.917Z</time></trkpt><trkpt lat="39.997668893012275" lon="8.419704885763585"><ele>9.333333333333334</ele><time>2026-04-26T14:32:50.918Z</time></trkpt><trkpt lat="39.99777326098492" lon="8.419562261881769"><ele>9.666666666666668</ele><time>2026-04-26T14:32:51.918Z</time></trkpt><trkpt lat="39.997878318495424" lon="8.419418660069569"><ele>10.0</ele><time>2026-04-26T14:32:52.918Z</time></trkpt><trkpt lat="39.99798366866762" lon="8.419274132773166"><ele>10.0</ele><time>2026-04-26T14:32:53.916Z</time></trkpt><trkpt lat="39.99809194981789" lon="8.419122972666752"><ele>10.0</ele><time>2026-04-26T14:32:54.916Z</time></trkpt><trkpt lat="39.99820510596648" lon="8.418971070983071"><ele>10.0</ele><time>2026-04-26T14:32:55.916Z</time></trkpt><trkpt lat="39.9983203378541" lon="8.4188131641887"><ele>10.0</ele><time>2026-04-26T14:32:56.916Z</time></trkpt><trkpt lat="39.998441456918485" lon="8.41865558467518"><ele>10.0</ele><time>2026-04-26T14:32:57.916Z</time></trkpt><trkpt lat="39.99856171975434" lon="8.41849867588217"><ele>10.0</ele><time>2026-04-26T14:32:58.916Z</time></trkpt><trkpt lat="39.99868624284759" lon="8.418341185526138"><ele>10.0</ele><time>2026-04-26T14:32:59.916Z</time></trkpt><trkpt lat="39.99880708208117" lon="8.418194284661961"><ele>10.0</ele><time>2026-04-26T14:33:00.917Z</time></trkpt><trkpt lat="39.99892687073304" lon="8.418053198808494"><ele>10.0</ele><time>2026-04-26T14:33:01.917Z</time></trkpt><trkpt lat="39.999052761585155" lon="8.417899544816617"><ele>10.333333333333334</ele><time>2026-04-26T14:33:02.917Z</time></trkpt><trkpt lat="39.999184585029575" lon="8.417752725971294"><ele>10.666666666666666</ele><time>2026-04-26T14:33:03.916Z</time></trkpt><trkpt lat="39.99931973286752" lon="8.417615947041897"><ele>11.0</ele><time>2026-04-26T14:33:04.916Z</time></trkpt><trkpt lat="39.99945720179989" lon="8.417480234296498"><ele>11.0</ele><time>2026-04-26T14:33:05.917Z</time></trkpt><trkpt lat="39.99959355062027" lon="8.41734964965534"><ele>11.0</ele><time>2026-04-26T14:33:06.916Z</time></trkpt><trkpt lat="39.99973079364798" lon="8.417215203123522"><ele>11.0</ele><time>2026-04-26T14:33:07.916Z</time></trkpt><trkpt lat="39.9998654592782" lon="8.417087471069493"><ele>11.666666666666666</ele><time>2026-04-26T14:33:08.916Z</time></trkpt><trkpt lat="40.00000545398468" lon="8.416956759007736"><ele>12.333333333333332</ele><time>2026-04-26T14:33:09.916Z</time></trkpt><trkpt lat="40.00014309767896" lon="8.416825568273511"><ele>13.0</ele><time>2026-04-26T14:33:10.916Z</time></trkpt><trkpt lat="40.00027681105942" lon="8.416697486036922"><ele>13.0</ele><time>2026-04-26T14:33:11.916Z</time></trkpt><trkpt lat="40.00040817463498" lon="8.416560907793555"><ele>13.0</ele><time>2026-04-26T14:33:12.916Z</time></trkpt><trkpt lat="40.00054204086967" lon="8.416433920298509"><ele>13.0</ele><time>2026-04-26T14:33:13.916Z</time></trkpt><trkpt lat="40.00066502949314" lon="8.416315319265077"><ele>13.5</ele><time>2026-04-26T14:33:14.916Z</time></trkpt><trkpt lat="40.000778040120245" lon="8.416212495669926"><ele>14.0</ele><time>2026-04-26T14:33:15.916Z</time></trkpt><trkpt lat="40.00088482219373" lon="8.416122611785719"><ele>14.5</ele><time>2026-04-26T14:33:16.916Z</time></trkpt><trkpt lat="40.000980364147516" lon="8.416056191254546"><ele>15.0</ele><time>2026-04-26T14:33:17.916Z</time></trkpt><trkpt lat="40.00105194247291" lon="8.416018720325864"><ele>15.0</ele><time>2026-04-26T14:33:18.916Z</time></trkpt><trkpt lat="40.00111465404755" lon="8.415996046612852"><ele>15.0</ele><time>2026-04-26T14:33:20.916Z</time></trkpt><trkpt lat="40.0011894967963" lon="8.41593025346109"><ele>15.0</ele><time>2026-04-26T14:33:28.916Z</time></trkpt><trkpt lat="40.001202756352434" lon="8.41575343955085"><ele>15.0</ele><time>2026-04-26T14:33:29.916Z</time></trkpt><trkpt lat="40.00126261806568" lon="8.415720871989226"><ele>15.0</ele><time>2026-04-26T14:33:30.916Z</time></trkpt><trkpt lat="40.00132371806227" lon="8.415693575246772"><ele>15.0</ele><time>2026-04-26T14:33:31.916Z</time></trkpt><trkpt lat="40.001386698681124" lon="8.41568271838847"><ele>15.0</ele><time>2026-04-26T14:33:32.916Z</time></trkpt><trkpt lat="40.001457323753684" lon="8.415672435009144"><ele>15.0</ele><time>2026-04-26T14:33:33.916Z</time></trkpt><trkpt lat="40.0015273104978" lon="8.415672911320625"><ele>15.0</ele><time>2026-04-26T14:33:34.916Z</time></trkpt><trkpt lat="40.00159770409709" lon="8.415681316498071"><ele>15.0</ele><time>2026-04-26T14:33:35.916Z</time></trkpt><trkpt lat="40.00170027844682" lon="8.415687520903964"><ele>15.0</ele><time>2026-04-26T14:33:37.916Z</time></trkpt><trkpt lat="40.00175502048019" lon="8.41562181115004"><ele>15.0</ele><time>2026-04-26T14:33:39.916Z</time></trkpt><trkpt lat="40.00184031064576" lon="8.415578229042865"><ele>15.8</ele><time>2026-04-26T14:33:49.917Z</time></trkpt><trkpt lat="40.001936037653266" lon="8.415476095655531"><ele>16.6</ele><time>2026-04-26T14:33:51.917Z</time></trkpt><trkpt lat="40.00199144172658" lon="8.41540489214141"><ele>17.4</ele><time>2026-04-26T14:33:52.917Z</time></trkpt><trkpt lat="40.002050100321185" lon="8.41532512115571"><ele>18.2</ele><time>2026-04-26T14:33:53.917Z</time></trkpt><trkpt lat="40.00211356931887" lon="8.415240580695036"><ele>19.0</ele><time>2026-04-26T14:33:54.917Z</time></trkpt><trkpt lat="40.002179576637836" lon="8.41514342958288"><ele>19.0</ele><time>2026-04-26T14:33:55.917Z</time></trkpt><trkpt lat="40.002270072884045" lon="8.415065733583713"><ele>19.0</ele><time>2026-04-26T14:33:56.917Z</time></trkpt><trkpt lat="40.0023479670392" lon="8.414960683336169"><ele>19.0</ele><time>2026-04-26T14:33:57.917Z</time></trkpt><trkpt lat="40.00243520566577" lon="8.41487173656885"><ele>19.0</ele><time>2026-04-26T14:33:58.917Z</time></trkpt><trkpt lat="40.002515436111345" lon="8.414779922837932"><ele>19.0</ele><time>2026-04-26T14:33:59.917Z</time></trkpt><trkpt lat="40.00259827959921" lon="8.414685057236628"><ele>19.0</ele><time>2026-04-26T14:34:00.917Z</time></trkpt><trkpt lat="40.002687876923716" lon="8.414624248178846"><ele>19.0</ele><time>2026-04-26T14:34:01.917Z</time></trkpt><trkpt lat="40.002743081767875" lon="8.414510757825061"><ele>19.0</ele><time>2026-04-26T14:34:02.917Z</time></trkpt><trkpt lat="40.00280641199894" lon="8.414419642508815"><ele>19.0</ele><time>2026-04-26T14:34:03.917Z</time></trkpt><trkpt lat="40.00286194219362" lon="8.414320014426663"><ele>19.0</ele><time>2026-04-26T14:34:04.917Z</time></trkpt><trkpt lat="40.002932040773466" lon="8.414248411304802"><ele>19.0</ele><time>2026-04-26T14:34:05.917Z</time></trkpt><trkpt lat="40.002977788996716" lon="8.41418945643464"><ele>19.0</ele><time>2026-04-26T14:34:06.917Z</time></trkpt><trkpt lat="40.0030702557757" lon="8.414133452650775"><ele>19.0</ele><time>2026-04-26T14:34:08.917Z</time></trkpt><trkpt lat="40.003154222339795" lon="8.414144138338498"><ele>19.0</ele><time>2026-04-26T14:34:10.917Z</time></trkpt><trkpt lat="40.00324462005889" lon="8.414124860846742"><ele>19.0</ele><time>2026-04-26T14:34:12.917Z</time></trkpt><trkpt lat="40.003310445684534" lon="8.41406553336454"><ele>19.0</ele><time>2026-04-26T14:34:15.917Z</time></trkpt><trkpt lat="40.00336169559446" lon="8.413938548776867"><ele>20.0</ele><time>2026-04-26T14:34:17.917Z</time></trkpt><trkpt lat="40.00363072729014" lon="8.41352388695021"><ele>21.0</ele><time>2026-04-26T14:34:19.917Z</time></trkpt><trkpt lat="40.00369177714206" lon="8.413214936226023"><ele>21.0</ele><time>2026-04-26T14:34:27.917Z</time></trkpt><trkpt lat="40.003754699919746" lon="8.413152833437175"><ele>21.0</ele><time>2026-04-26T14:34:29.917Z</time></trkpt><trkpt lat="40.003818302584364" lon="8.41313861410996"><ele>21.0</ele><time>2026-04-26T14:34:31.917Z</time></trkpt><trkpt lat="40.00386299502549" lon="8.413073895991378"><ele>21.0</ele><time>2026-04-26T14:34:33.917Z</time></trkpt><trkpt lat="40.003896934856634" lon="8.412958537593653"><ele>21.0</ele><time>2026-04-26T14:34:35.917Z</time></trkpt><trkpt lat="40.003957375097684" lon="8.412861910488617"><ele>21.0</ele><time>2026-04-26T14:34:37.917Z</time></trkpt><trkpt lat="40.00403174435426" lon="8.412765690084845"><ele>21.0</ele><time>2026-04-26T14:34:39.917Z</time></trkpt><trkpt lat="40.00408475207847" lon="8.412614937727124"><ele>21.0</ele><time>2026-04-26T14:34:41.917Z</time></trkpt><trkpt lat="40.00411743197119" lon="8.412537987760922"><ele>21.0</ele><time>2026-04-26T14:34:42.917Z</time></trkpt><trkpt lat="40.004176514028806" lon="8.412405660397074"><ele>21.0</ele><time>2026-04-26T14:34:44.917Z</time></trkpt><trkpt lat="40.004216531257406" lon="8.412295093856226"><ele>21.0</ele><time>2026-04-26T14:34:46.917Z</time></trkpt><trkpt lat="40.00421826508066" lon="8.412188140607318"><ele>20.2</ele><time>2026-04-26T14:34:48.918Z</time></trkpt><trkpt lat="40.00420549230529" lon="8.412059061354395"><ele>19.400000000000002</ele><time>2026-04-26T14:34:50.918Z</time></trkpt><trkpt lat="40.0041962223783" lon="8.411924380539471"><ele>18.6</ele><time>2026-04-26T14:34:52.918Z</time></trkpt><trkpt lat="40.00417246517142" lon="8.411774427525984"><ele>17.8</ele><time>2026-04-26T14:34:54.918Z</time></trkpt><trkpt lat="40.00415896538661" lon="8.411624380633851"><ele>17.0</ele><time>2026-04-26T14:34:56.918Z</time></trkpt><trkpt lat="40.00416579532546" lon="8.41153163589208"><ele>17.0</ele><time>2026-04-26T14:34:58.918Z</time></trkpt><trkpt lat="40.00421241960045" lon="8.411453025877048"><ele>17.0</ele><time>2026-04-26T14:35:01.918Z</time></trkpt><trkpt lat="40.00424954699649" lon="8.411350867309887"><ele>17.0</ele><time>2026-04-26T14:35:03.917Z</time></trkpt><trkpt lat="40.004254752173416" lon="8.411230539458378"><ele>17.0</ele><time>2026-04-26T14:35:05.918Z</time></trkpt><trkpt lat="40.00425390643546" lon="8.411126239959906"><ele>17.0</ele><time>2026-04-26T14:35:07.917Z</time></trkpt><trkpt lat="40.00428050935979" lon="8.411023010986012"><ele>17.0</ele><time>2026-04-26T14:35:09.917Z</time></trkpt><trkpt lat="40.00433703650384" lon="8.41094954942445"><ele>16.0</ele><time>2026-04-26T14:35:11.918Z</time></trkpt><trkpt lat="40.00437062334998" lon="8.410869146287494"><ele>15.0</ele><time>2026-04-26T14:35:13.918Z</time></trkpt><trkpt lat="40.004374795275396" lon="8.410738968590723"><ele>14.0</ele><time>2026-04-26T14:35:16.918Z</time></trkpt><trkpt lat="40.00439164572645" lon="8.410646052760459"><ele>13.0</ele><time>2026-04-26T14:35:18.918Z</time></trkpt><trkpt lat="40.00440546147559" lon="8.410531484497643"><ele>12.0</ele><time>2026-04-26T14:35:21.918Z</time></trkpt><trkpt lat="40.00436131653361" lon="8.410464763978364"><ele>11.0</ele><time>2026-04-26T14:35:24.918Z</time></trkpt><trkpt lat="40.00426528195528" lon="8.410495726889996"><ele>11.0</ele><time>2026-04-26T14:35:27.918Z</time></trkpt><trkpt lat="40.00417608064421" lon="8.41050139891184"><ele>11.0</ele><time>2026-04-26T14:35:29.918Z</time></trkpt><trkpt lat="40.00410083018222" lon="8.41048081373617"><ele>11.0</ele><time>2026-04-26T14:35:31.918Z</time></trkpt><trkpt lat="40.00401547782172" lon="8.41046206691492"><ele>11.0</ele><time>2026-04-26T14:35:34.918Z</time></trkpt><trkpt lat="40.003942929167636" lon="8.4105033276265"><ele>11.0</ele><time>2026-04-26T14:35:37.918Z</time></trkpt><trkpt lat="40.00387590659676" lon="8.410507024025335"><ele>11.0</ele><time>2026-04-26T14:35:40.918Z</time></trkpt><trkpt lat="40.003842879548685" lon="8.410589396343743"><ele>10.833333333333332</ele><time>2026-04-26T14:47:36.924Z</time></trkpt><trkpt lat="40.00381911800281" lon="8.410716833065223"><ele>10.666666666666666</ele><time>2026-04-26T14:47:39.923Z</time></trkpt><trkpt lat="40.00380625275864" lon="8.41080610292178"><ele>10.5</ele><time>2026-04-26T14:47:41.924Z</time></trkpt><trkpt lat="40.003753152140966" lon="8.41089186925116"><ele>10.333333333333334</ele><time>2026-04-26T14:47:44.923Z</time></trkpt><trkpt lat="40.00367009757761" lon="8.410951519850439"><ele>10.166666666666668</ele><time>2026-04-26T14:47:46.923Z</time></trkpt><trkpt lat="40.0035917698667" lon="8.41101923437835"><ele>10.0</ele><time>2026-04-26T14:47:48.923Z</time></trkpt><trkpt lat="40.003480956171074" lon="8.411079233682402"><ele>10.0</ele><time>2026-04-26T14:47:50.923Z</time></trkpt><trkpt lat="40.00336708244679" lon="8.41114138270618"><ele>10.0</ele><time>2026-04-26T14:47:52.923Z</time></trkpt><trkpt lat="40.00331209820658" lon="8.411185733449978"><ele>10.0</ele><time>2026-04-26T14:47:53.923Z</time></trkpt><trkpt lat="40.003198445180004" lon="8.411285210259734"><ele>10.0</ele><time>2026-04-26T14:47:55.923Z</time></trkpt><trkpt lat="40.0031271094371" lon="8.411317040849672"><ele>10.0</ele><time>2026-04-26T14:47:56.923Z</time></trkpt><trkpt lat="40.003051266728164" lon="8.411339633980912"><ele>11.0</ele><time>2026-04-26T14:47:57.923Z</time></trkpt><trkpt lat="40.00292679780297" lon="8.41134709802931"><ele>12.0</ele><time>2026-04-26T14:47:59.923Z</time></trkpt><trkpt lat="40.00285755528194" lon="8.41135780699854"><ele>13.0</ele><time>2026-04-26T14:48:00.923Z</time></trkpt><trkpt lat="40.002786976639214" lon="8.411367518616663"><ele>14.0</ele><time>2026-04-26T14:48:01.923Z</time></trkpt><trkpt lat="40.00272377157805" lon="8.411374072080532"><ele>14.999999999999998</ele><time>2026-04-26T14:48:02.923Z</time></trkpt><trkpt lat="40.00264672609658" lon="8.411418394503228"><ele>16.0</ele><time>2026-04-26T14:48:04.923Z</time></trkpt><trkpt lat="40.00257390902754" lon="8.411429314658026"><ele>16.0</ele><time>2026-04-26T14:48:07.923Z</time></trkpt><trkpt lat="40.00251407161701" lon="8.411392718565981"><ele>16.0</ele><time>2026-04-26T14:48:09.923Z</time></trkpt><trkpt lat="40.00242344876915" lon="8.411399964949654"><ele>16.0</ele><time>2026-04-26T14:48:11.923Z</time></trkpt><trkpt lat="40.002301889941286" lon="8.411386387473366"><ele>16.0</ele><time>2026-04-26T14:48:13.923Z</time></trkpt><trkpt lat="40.00220712544009" lon="8.411372608397532"><ele>16.0</ele><time>2026-04-26T14:48:15.923Z</time></trkpt><trkpt lat="40.00211792660504" lon="8.411374022115497"><ele>16.142857142857142</ele><time>2026-04-26T14:48:17.923Z</time></trkpt><trkpt lat="40.00203384408757" lon="8.411340955116081"><ele>16.285714285714285</ele><time>2026-04-26T14:48:19.923Z</time></trkpt><trkpt lat="40.00197562041632" lon="8.411293457760664"><ele>16.428571428571427</ele><time>2026-04-26T14:48:22.923Z</time></trkpt><trkpt lat="40.00191712815767" lon="8.411258499457762"><ele>16.57142857142857</ele><time>2026-04-26T14:48:30.924Z</time></trkpt><trkpt lat="40.001861073398885" lon="8.411218201557324"><ele>16.714285714285715</ele><time>2026-04-26T14:48:32.924Z</time></trkpt><trkpt lat="40.00179600971287" lon="8.411202540309052"><ele>16.857142857142854</ele><time>2026-04-26T14:48:34.924Z</time></trkpt><trkpt lat="40.00171403263047" lon="8.411254683589323"><ele>17.0</ele><time>2026-04-26T14:48:36.924Z</time></trkpt><trkpt lat="40.00163555386081" lon="8.41132221176162"><ele>16.0</ele><time>2026-04-26T14:48:38.924Z</time></trkpt><trkpt lat="40.001547178472336" lon="8.41142024802137"><ele>15.0</ele><time>2026-04-26T14:48:40.924Z</time></trkpt><trkpt lat="40.0014644020575" lon="8.411519673432922"><ele>14.0</ele><time>2026-04-26T14:48:42.924Z</time></trkpt><trkpt lat="40.00141866718735" lon="8.411577163309177"><ele>13.0</ele><time>2026-04-26T14:48:43.924Z</time></trkpt><trkpt lat="40.00136575194338" lon="8.41162428184067"><ele>12.0</ele><time>2026-04-26T14:48:44.924Z</time></trkpt><trkpt lat="40.00126316793781" lon="8.4116867402113"><ele>12.0</ele><time>2026-04-26T14:48:46.924Z</time></trkpt><trkpt lat="40.00116803137632" lon="8.411729582024044"><ele>12.0</ele><time>2026-04-26T14:48:48.924Z</time></trkpt><trkpt lat="40.00108459452806" lon="8.411740662048281"><ele>12.0</ele><time>2026-04-26T14:48:50.924Z</time></trkpt><trkpt lat="40.001020984727965" lon="8.411752491313475"><ele>12.0</ele><time>2026-04-26T14:48:51.924Z</time></trkpt><trkpt lat="40.000910075812556" lon="8.411781384000266"><ele>12.0</ele><time>2026-04-26T14:48:53.924Z</time></trkpt><trkpt lat="40.00083141061739" lon="8.41178076611787"><ele>12.0</ele><time>2026-04-26T14:48:55.924Z</time></trkpt><trkpt lat="40.00074701764187" lon="8.411751148078668"><ele>11.8</ele><time>2026-04-26T14:48:57.924Z</time></trkpt><trkpt lat="40.000650704988296" lon="8.411765026923911"><ele>11.6</ele><time>2026-04-26T14:48:59.924Z</time></trkpt><trkpt lat="40.000544198101736" lon="8.411722006123268"><ele>11.4</ele><time>2026-04-26T14:49:01.924Z</time></trkpt><trkpt lat="40.00042361805955" lon="8.411655219240975"><ele>11.200000000000001</ele><time>2026-04-26T14:49:03.924Z</time></trkpt><trkpt lat="40.00036258522952" lon="8.41162099741354"><ele>11.0</ele><time>2026-04-26T14:49:04.924Z</time></trkpt><trkpt lat="40.00026307466452" lon="8.411547520450949"><ele>11.0</ele><time>2026-04-26T14:49:06.924Z</time></trkpt><trkpt lat="40.00015437013815" lon="8.411486807635434"><ele>11.0</ele><time>2026-04-26T14:49:08.924Z</time></trkpt><trkpt lat="40.00008563837322" lon="8.411479904384604"><ele>11.0</ele><time>2026-04-26T14:49:09.924Z</time></trkpt><trkpt lat="40.000014207624034" lon="8.4114802178924"><ele>11.0</ele><time>2026-04-26T14:49:10.924Z</time></trkpt><trkpt lat="39.99993876766256" lon="8.411477174107661"><ele>11.0</ele><time>2026-04-26T14:49:11.924Z</time></trkpt><trkpt lat="39.99985858146604" lon="8.411474246497646"><ele>11.0</ele><time>2026-04-26T14:49:12.924Z</time></trkpt><trkpt lat="39.999781028890695" lon="8.411468956308527"><ele>11.0</ele><time>2026-04-26T14:49:13.924Z</time></trkpt><trkpt lat="39.999702506888845" lon="8.411463152636504"><ele>11.0</ele><time>2026-04-26T14:49:14.924Z</time></trkpt><trkpt lat="39.99962399750336" lon="8.411450700424032"><ele>11.0</ele><time>2026-04-26T14:49:15.924Z</time></trkpt><trkpt lat="39.99955503330618" lon="8.411434724120522"><ele>11.0</ele><time>2026-04-26T14:49:16.924Z</time></trkpt><trkpt lat="39.999494790016485" lon="8.411410474522079"><ele>11.0</ele><time>2026-04-26T14:49:17.924Z</time></trkpt><trkpt lat="39.99938235938989" lon="8.41134348641594"><ele>11.0</ele><time>2026-04-26T14:49:19.924Z</time></trkpt><trkpt lat="39.99932189163485" lon="8.411320068199066"><ele>10.333333333333332</ele><time>2026-04-26T14:49:20.924Z</time></trkpt><trkpt lat="39.99925643771462" lon="8.411286753603237"><ele>9.666666666666666</ele><time>2026-04-26T14:49:21.924Z</time></trkpt><trkpt lat="39.9991907358648" lon="8.411247569768273"><ele>9.0</ele><time>2026-04-26T14:49:22.924Z</time></trkpt><trkpt lat="39.99913007631193" lon="8.411201745637062"><ele>8.333333333333334</ele><time>2026-04-26T14:49:23.924Z</time></trkpt><trkpt lat="39.9990800843687" lon="8.411137085429583"><ele>7.666666666666667</ele><time>2026-04-26T14:49:24.924Z</time></trkpt><trkpt lat="39.999037931288434" lon="8.411069056368913"><ele>7.0</ele><time>2026-04-26T14:49:25.924Z</time></trkpt><trkpt lat="39.998985329619366" lon="8.410907961497566"><ele>7.000000000000001</ele><time>2026-04-26T14:49:27.924Z</time></trkpt><trkpt lat="39.99895683497638" lon="8.410807469918705"><ele>7.0</ele><time>2026-04-26T14:49:28.924Z</time></trkpt><trkpt lat="39.998925075501305" lon="8.410704358726244"><ele>7.0</ele><time>2026-04-26T14:49:29.924Z</time></trkpt><trkpt lat="39.99888958628566" lon="8.410606084057703"><ele>7.0</ele><time>2026-04-26T14:49:30.924Z</time></trkpt><trkpt lat="39.99885066576248" lon="8.410507806810969"><ele>7.000000000000001</ele><time>2026-04-26T14:49:31.925Z</time></trkpt><trkpt lat="39.998814502521604" lon="8.410422459534145"><ele>7.0</ele><time>2026-04-26T14:49:32.925Z</time></trkpt><trkpt lat="39.99877219362726" lon="8.410352339622095"><ele>5.8</ele><time>2026-04-26T14:49:33.925Z</time></trkpt><trkpt lat="39.99868298229344" lon="8.410256479596121"><ele>4.6</ele><time>2026-04-26T14:49:35.925Z</time></trkpt><trkpt lat="39.998574733097676" lon="8.410219276161463"><ele>3.4</ele><time>2026-04-26T14:49:37.925Z</time></trkpt><trkpt lat="39.99851262331955" lon="8.410201239157725"><ele>2.2</ele><time>2026-04-26T14:49:38.925Z</time></trkpt><trkpt lat="39.99840577068206" lon="8.410129143629176"><ele>1.0</ele><time>2026-04-26T14:49:40.925Z</time></trkpt><trkpt lat="39.99835362578676" lon="8.410081504995421"><ele>2.5</ele><time>2026-04-26T14:49:41.925Z</time></trkpt><trkpt lat="39.99825521695618" lon="8.409989369905984"><ele>4.0</ele><time>2026-04-26T14:49:43.925Z</time></trkpt><trkpt lat="39.998195123909795" lon="8.409945422517422"><ele>5.5</ele><time>2026-04-26T14:49:44.924Z</time></trkpt><trkpt lat="39.99812206711957" lon="8.40991563077747"><ele>7.0</ele><time>2026-04-26T14:49:45.924Z</time></trkpt><trkpt lat="39.99804502000309" lon="8.409893014367851"><ele>8.5</ele><time>2026-04-26T14:49:46.925Z</time></trkpt><trkpt lat="39.99796985116244" lon="8.409867832098213"><ele>10.0</ele><time>2026-04-26T14:49:47.924Z</time></trkpt><trkpt lat="39.99789884462974" lon="8.40984884540387"><ele>10.0</ele><time>2026-04-26T14:49:48.924Z</time></trkpt><trkpt lat="39.99776817137497" lon="8.409856695717943"><ele>10.0</ele><time>2026-04-26T14:49:50.925Z</time></trkpt><trkpt lat="39.997688084729795" lon="8.409859710307288"><ele>10.0</ele><time>2026-04-26T14:49:51.925Z</time></trkpt><trkpt lat="39.99761554555623" lon="8.409848985283665"><ele>10.0</ele><time>2026-04-26T14:49:52.925Z</time></trkpt><trkpt lat="39.99751594879931" lon="8.409817114984977"><ele>10.0</ele><time>2026-04-26T14:49:54.924Z</time></trkpt><trkpt lat="39.99741152580027" lon="8.409728992839195"><ele>10.8</ele><time>2026-04-26T14:49:56.925Z</time></trkpt><trkpt lat="39.997302044298685" lon="8.409669344537386"><ele>11.6</ele><time>2026-04-26T14:49:58.925Z</time></trkpt><trkpt lat="39.997228974473046" lon="8.40965911268613"><ele>12.399999999999999</ele><time>2026-04-26T14:49:59.925Z</time></trkpt><trkpt lat="39.99714946340152" lon="8.409651711403363"><ele>13.2</ele><time>2026-04-26T14:50:00.925Z</time></trkpt><trkpt lat="39.99707984920753" lon="8.409634477949702"><ele>14.0</ele><time>2026-04-26T14:50:01.925Z</time></trkpt><trkpt lat="39.996970948017136" lon="8.409582175076308"><ele>12.799999999999999</ele><time>2026-04-26T14:50:03.925Z</time></trkpt><trkpt lat="39.99685826207722" lon="8.409529404633334"><ele>11.599999999999998</ele><time>2026-04-26T14:50:05.925Z</time></trkpt><trkpt lat="39.99678771106833" lon="8.409523383417769"><ele>10.4</ele><time>2026-04-26T14:50:06.925Z</time></trkpt><trkpt lat="39.996720396846" lon="8.409529496682422"><ele>9.2</ele><time>2026-04-26T14:50:07.925Z</time></trkpt><trkpt lat="39.99660835947196" lon="8.409525103667644"><ele>8.0</ele><time>2026-04-26T14:50:09.925Z</time></trkpt><trkpt lat="39.9965046920861" lon="8.409457177513193"><ele>8.0</ele><time>2026-04-26T14:50:11.925Z</time></trkpt><trkpt lat="39.996393516476466" lon="8.409405365913875"><ele>8.0</ele><time>2026-04-26T14:50:13.925Z</time></trkpt><trkpt lat="39.99627578179042" lon="8.40933848873289"><ele>8.0</ele><time>2026-04-26T14:50:15.925Z</time></trkpt><trkpt lat="39.996204093420026" lon="8.409259429496643"><ele>8.0</ele><time>2026-04-26T14:50:17.925Z</time></trkpt><trkpt lat="39.99613047585858" lon="8.409195398663762"><ele>8.0</ele><time>2026-04-26T14:50:20.925Z</time></trkpt><trkpt lat="39.99606222132597" lon="8.409200174204909"><ele>8.0</ele><time>2026-04-26T14:50:22.925Z</time></trkpt><trkpt lat="39.995963832179186" lon="8.409147148602457"><ele>8.0</ele><time>2026-04-26T14:50:35.925Z</time></trkpt><trkpt lat="39.99586863804868" lon="8.409036315343728"><ele>8.0</ele><time>2026-04-26T14:50:37.925Z</time></trkpt><trkpt lat="39.99581512727833" lon="8.40896492352767"><ele>8.0</ele><time>2026-04-26T14:50:38.925Z</time></trkpt><trkpt lat="39.99576403192287" lon="8.408900323265172"><ele>8.0</ele><time>2026-04-26T14:50:39.925Z</time></trkpt><trkpt lat="39.995655525146255" lon="8.408782874917001"><ele>7.571428571428571</ele><time>2026-04-26T14:50:41.925Z</time></trkpt><trkpt lat="39.99559765058716" lon="8.40872989499151"><ele>7.142857142857142</ele><time>2026-04-26T14:50:42.925Z</time></trkpt><trkpt lat="39.99553450670212" lon="8.40868071233294"><ele>6.7142857142857135</ele><time>2026-04-26T14:50:43.925Z</time></trkpt><trkpt lat="39.99546655121392" lon="8.408635113794885"><ele>6.285714285714286</ele><time>2026-04-26T14:50:44.925Z</time></trkpt><trkpt lat="39.9953989074416" lon="8.408588718837404"><ele>5.857142857142858</ele><time>2026-04-26T14:50:45.925Z</time></trkpt><trkpt lat="39.99533297631605" lon="8.408548016885247"><ele>5.428571428571429</ele><time>2026-04-26T14:50:46.925Z</time></trkpt><trkpt lat="39.99527355246768" lon="8.40851484934246"><ele>5.0</ele><time>2026-04-26T14:50:47.925Z</time></trkpt><trkpt lat="39.99521678827235" lon="8.408473978142347"><ele>5.0</ele><time>2026-04-26T14:50:48.925Z</time></trkpt><trkpt lat="39.99516784265621" lon="8.408414832624556"><ele>5.0</ele><time>2026-04-26T14:50:49.925Z</time></trkpt><trkpt lat="39.99512871237559" lon="8.408343541217214"><ele>5.0</ele><time>2026-04-26T14:50:50.925Z</time></trkpt><trkpt lat="39.99504423068831" lon="8.40822939584937"><ele>5.0</ele><time>2026-04-26T14:50:52.925Z</time></trkpt><trkpt lat="39.99500579298089" lon="8.408159393685969"><ele>5.0</ele><time>2026-04-26T14:50:53.925Z</time></trkpt><trkpt lat="39.994992450954115" lon="8.407986513784113"><ele>7.333333333333334</ele><time>2026-04-26T14:50:55.925Z</time></trkpt><trkpt lat="39.99499744895552" lon="8.407893266502967"><ele>9.666666666666666</ele><time>2026-04-26T14:50:56.925Z</time></trkpt><trkpt lat="39.994997729250024" lon="8.407806673271068"><ele>12.0</ele><time>2026-04-26T14:50:57.925Z</time></trkpt><trkpt lat="39.99498082586197" lon="8.407646798585388"><ele>14.333333333333332</ele><time>2026-04-26T14:50:59.925Z</time></trkpt><trkpt lat="39.99497856186603" lon="8.407555006814077"><ele>16.666666666666664</ele><time>2026-04-26T14:51:00.926Z</time></trkpt><trkpt lat="39.994980263616974" lon="8.407457751275293"><ele>19.0</ele><time>2026-04-26T14:51:01.926Z</time></trkpt><trkpt lat="39.99498928043577" lon="8.407356142139026"><ele>19.0</ele><time>2026-04-26T14:51:02.926Z</time></trkpt><trkpt lat="39.99499265130276" lon="8.4072549405173"><ele>19.0</ele><time>2026-04-26T14:51:03.926Z</time></trkpt><trkpt lat="39.99498723785198" lon="8.407154150336924"><ele>19.0</ele><time>2026-04-26T14:51:04.926Z</time></trkpt><trkpt lat="39.99498504515155" lon="8.407049027916596"><ele>19.0</ele><time>2026-04-26T14:51:05.926Z</time></trkpt><trkpt lat="39.994983941031464" lon="8.40695833561296"><ele>19.0</ele><time>2026-04-26T14:51:06.926Z</time></trkpt><trkpt lat="39.994995044192386" lon="8.40686084129621"><ele>19.0</ele><time>2026-04-26T14:51:07.926Z</time></trkpt><trkpt lat="39.99501136704746" lon="8.406771992131773"><ele>15.999999999999998</ele><time>2026-04-26T14:51:08.926Z</time></trkpt><trkpt lat="39.995017814741594" lon="8.406687409105766"><ele>13.0</ele><time>2026-04-26T14:51:09.926Z</time></trkpt><trkpt lat="39.995023034853396" lon="8.406602039948746"><ele>10.0</ele><time>2026-04-26T14:51:10.926Z</time></trkpt><trkpt lat="39.99503476572231" lon="8.406510721426736"><ele>7.0</ele><time>2026-04-26T14:51:11.926Z</time></trkpt><trkpt lat="39.99505123235346" lon="8.406420448046322"><ele>4.0</ele><time>2026-04-26T14:51:12.926Z</time></trkpt><trkpt lat="39.99504468851096" lon="8.4062615929482"><ele>1.0</ele><time>2026-04-26T14:51:14.926Z</time></trkpt><trkpt lat="39.99501922454998" lon="8.406182508425186"><ele>2.333333333333333</ele><time>2026-04-26T14:51:15.926Z</time></trkpt><trkpt lat="39.99497610244706" lon="8.406095560062608"><ele>3.6666666666666665</ele><time>2026-04-26T14:51:16.926Z</time></trkpt><trkpt lat="39.99492938752125" lon="8.406010618122323"><ele>5.0</ele><time>2026-04-26T14:51:17.926Z</time></trkpt><trkpt lat="39.994881948998774" lon="8.405928060459221"><ele>6.333333333333333</ele><time>2026-04-26T14:51:18.926Z</time></trkpt><trkpt lat="39.994831183127374" lon="8.405841267063527"><ele>7.666666666666667</ele><time>2026-04-26T14:51:19.926Z</time></trkpt><trkpt lat="39.99477971077706" lon="8.405757942545153"><ele>9.0</ele><time>2026-04-26T14:51:20.926Z</time></trkpt><trkpt lat="39.994726095971366" lon="8.40567922823392"><ele>9.0</ele><time>2026-04-26T14:51:21.926Z</time></trkpt><trkpt lat="39.99466969795128" lon="8.40560411111031"><ele>9.0</ele><time>2026-04-26T14:51:22.926Z</time></trkpt><trkpt lat="39.994610460283454" lon="8.405541108295244"><ele>9.0</ele><time>2026-04-26T14:51:23.926Z</time></trkpt><trkpt lat="39.994546203555736" lon="8.405496386028561"><ele>9.0</ele><time>2026-04-26T14:51:24.926Z</time></trkpt><trkpt lat="39.99448188852283" lon="8.405458127759433"><ele>9.0</ele><time>2026-04-26T14:51:25.926Z</time></trkpt><trkpt lat="39.99440209955292" lon="8.405423849008283"><ele>9.0</ele><time>2026-04-26T14:51:27.926Z</time></trkpt><trkpt lat="39.994303316862016" lon="8.405472387889763"><ele>9.000000000000002</ele><time>2026-04-26T14:51:29.926Z</time></trkpt><trkpt lat="39.99424776766145" lon="8.405521469786915"><ele>9.0</ele><time>2026-04-26T14:51:30.926Z</time></trkpt><trkpt lat="39.99419362884238" lon="8.405574659395752"><ele>9.0</ele><time>2026-04-26T14:51:31.926Z</time></trkpt><trkpt lat="39.99413913691504" lon="8.405635284963127"><ele>9.0</ele><time>2026-04-26T14:51:32.926Z</time></trkpt><trkpt lat="39.99408628613722" lon="8.40571038420984"><ele>9.0</ele><time>2026-04-26T14:51:33.926Z</time></trkpt><trkpt lat="39.99403289256959" lon="8.405772772407493"><ele>9.000000000000002</ele><time>2026-04-26T14:51:34.926Z</time></trkpt><trkpt lat="39.993980256100365" lon="8.405828509271217"><ele>9.0</ele><time>2026-04-26T14:51:35.926Z</time></trkpt><trkpt lat="39.99393591005124" lon="8.405895470445659"><ele>9.666666666666666</ele><time>2026-04-26T14:51:36.926Z</time></trkpt><trkpt lat="39.993878170095705" lon="8.405976478742446"><ele>10.333333333333332</ele><time>2026-04-26T14:51:37.926Z</time></trkpt><trkpt lat="39.99381605057529" lon="8.406036880868308"><ele>11.0</ele><time>2026-04-26T14:51:38.926Z</time></trkpt><trkpt lat="39.99375660643437" lon="8.406103843628117"><ele>11.666666666666666</ele><time>2026-04-26T14:51:39.926Z</time></trkpt><trkpt lat="39.99369480642564" lon="8.40616834456847"><ele>12.333333333333332</ele><time>2026-04-26T14:51:40.926Z</time></trkpt><trkpt lat="39.99364003340861" lon="8.406224102065192"><ele>13.0</ele><time>2026-04-26T14:51:41.926Z</time></trkpt><trkpt lat="39.993538277143806" lon="8.406277418224878"><ele>13.0</ele><time>2026-04-26T14:51:43.926Z</time></trkpt><trkpt lat="39.993435943851495" lon="8.406239300941854"><ele>13.0</ele><time>2026-04-26T14:51:45.926Z</time></trkpt><trkpt lat="39.99334415198284" lon="8.406128440812743"><ele>13.0</ele><time>2026-04-26T14:51:47.926Z</time></trkpt><trkpt lat="39.993299935748624" lon="8.406064665113798"><ele>13.0</ele><time>2026-04-26T14:51:48.926Z</time></trkpt><trkpt lat="39.99325114011434" lon="8.406009055853502"><ele>13.0</ele><time>2026-04-26T14:51:49.926Z</time></trkpt><trkpt lat="39.99315564986557" lon="8.405921789317143"><ele>13.600000000000001</ele><time>2026-04-26T14:51:51.925Z</time></trkpt><trkpt lat="39.99309616346864" lon="8.405881521500989"><ele>14.200000000000001</ele><time>2026-04-26T14:51:52.925Z</time></trkpt><trkpt lat="39.99298709498845" lon="8.405824964572597"><ele>14.8</ele><time>2026-04-26T14:51:54.926Z</time></trkpt><trkpt lat="39.9928626436868" lon="8.405799008096475"><ele>15.4</ele><time>2026-04-26T14:51:56.925Z</time></trkpt><trkpt lat="39.99274564544905" lon="8.405755979970957"><ele>16.0</ele><time>2026-04-26T14:51:58.925Z</time></trkpt><trkpt lat="39.99268424344556" lon="8.405732801108224"><ele>15.999999999999998</ele><time>2026-04-26T14:51:59.925Z</time></trkpt><trkpt lat="39.99262086860216" lon="8.405724697736146"><ele>16.0</ele><time>2026-04-26T14:52:00.925Z</time></trkpt><trkpt lat="39.99254519551797" lon="8.40572089503179"><ele>16.0</ele><time>2026-04-26T14:52:01.925Z</time></trkpt><trkpt lat="39.99248230177417" lon="8.405698552748154"><ele>16.0</ele><time>2026-04-26T14:52:02.925Z</time></trkpt><trkpt lat="39.99242173932723" lon="8.405664285232389"><ele>15.999999999999998</ele><time>2026-04-26T14:52:03.925Z</time></trkpt><trkpt lat="39.99231543957638" lon="8.405584391324751"><ele>16.0</ele><time>2026-04-26T14:52:05.925Z</time></trkpt><trkpt lat="39.99226266843643" lon="8.405533743886094"><ele>15.999999999999998</ele><time>2026-04-26T14:52:06.925Z</time></trkpt><trkpt lat="39.99220217499476" lon="8.405503541453747"><ele>16.0</ele><time>2026-04-26T14:52:07.925Z</time></trkpt><trkpt lat="39.99214044531169" lon="8.405463605112155"><ele>16.0</ele><time>2026-04-26T14:52:08.925Z</time></trkpt><trkpt lat="39.99204191219139" lon="8.405356519224682"><ele>16.0</ele><time>2026-04-26T14:52:10.925Z</time></trkpt><trkpt lat="39.9919923061279" lon="8.405293095902168"><ele>15.999999999999998</ele><time>2026-04-26T14:52:11.925Z</time></trkpt><trkpt lat="39.9919318560648" lon="8.405222468522272"><ele>16.0</ele><time>2026-04-26T14:52:12.925Z</time></trkpt><trkpt lat="39.99188423763271" lon="8.40515215266916"><ele>16.428571428571427</ele><time>2026-04-26T14:52:13.925Z</time></trkpt><trkpt lat="39.99183683321708" lon="8.405073353291161"><ele>16.857142857142854</ele><time>2026-04-26T14:52:14.926Z</time></trkpt><trkpt lat="39.9917935066214" lon="8.405003936722354"><ele>17.285714285714285</ele><time>2026-04-26T14:52:15.926Z</time></trkpt><trkpt lat="39.99175611869268" lon="8.404932844614164"><ele>17.714285714285715</ele><time>2026-04-26T14:52:16.926Z</time></trkpt><trkpt lat="39.99171516327368" lon="8.404860112362329"><ele>18.142857142857146</ele><time>2026-04-26T14:52:17.926Z</time></trkpt><trkpt lat="39.991669313687915" lon="8.404789644074079"><ele>18.57142857142857</ele><time>2026-04-26T14:52:18.926Z</time></trkpt><trkpt lat="39.991618658416556" lon="8.404721043963528"><ele>19.0</ele><time>2026-04-26T14:52:19.926Z</time></trkpt><trkpt lat="39.99157029782767" lon="8.404660533356102"><ele>17.166666666666664</ele><time>2026-04-26T14:52:20.926Z</time></trkpt><trkpt lat="39.9914674246489" lon="8.404565325339927"><ele>15.333333333333332</ele><time>2026-04-26T14:52:22.926Z</time></trkpt><trkpt lat="39.9914048330856" lon="8.404537356456474"><ele>13.5</ele><time>2026-04-26T14:52:23.926Z</time></trkpt><trkpt lat="39.991333517421126" lon="8.40451695646187"><ele>11.666666666666666</ele><time>2026-04-26T14:52:24.926Z</time></trkpt><trkpt lat="39.99126446373264" lon="8.404498362830678"><ele>9.833333333333332</ele><time>2026-04-26T14:52:25.926Z</time></trkpt><trkpt lat="39.991189331338454" lon="8.404471364421045"><ele>8.0</ele><time>2026-04-26T14:52:26.926Z</time></trkpt><trkpt lat="39.991126662186964" lon="8.404437350375595"><ele>7.999999999999999</ele><time>2026-04-26T14:52:27.926Z</time></trkpt><trkpt lat="39.99106009135696" lon="8.404393054710924"><ele>8.0</ele><time>2026-04-26T14:52:28.926Z</time></trkpt><trkpt lat="39.990998690014116" lon="8.404352082520434"><ele>8.0</ele><time>2026-04-26T14:52:29.926Z</time></trkpt><trkpt lat="39.99093423189104" lon="8.404310265551441"><ele>8.0</ele><time>2026-04-26T14:52:30.926Z</time></trkpt><trkpt lat="39.990872497768294" lon="8.404273331879379"><ele>7.999999999999999</ele><time>2026-04-26T14:52:31.926Z</time></trkpt><trkpt lat="39.99081022378742" lon="8.4042325766081"><ele>8.0</ele><time>2026-04-26T14:52:32.926Z</time></trkpt><trkpt lat="39.990713708660444" lon="8.404130513664837"><ele>8.0</ele><time>2026-04-26T14:52:34.926Z</time></trkpt><trkpt lat="39.99067414260146" lon="8.404059886034998"><ele>7.999999999999999</ele><time>2026-04-26T14:52:35.926Z</time></trkpt><trkpt lat="39.990643379720915" lon="8.403975928377818"><ele>8.0</ele><time>2026-04-26T14:52:36.926Z</time></trkpt><trkpt lat="39.990614443155884" lon="8.40388573940544"><ele>8.0</ele><time>2026-04-26T14:52:37.926Z</time></trkpt><trkpt lat="39.990580238479964" lon="8.403789985756132"><ele>7.999999999999999</ele><time>2026-04-26T14:52:38.926Z</time></trkpt><trkpt lat="39.99055013725752" lon="8.40370109787446"><ele>8.0</ele><time>2026-04-26T14:52:39.926Z</time></trkpt><trkpt lat="39.99052134685354" lon="8.40361438875314"><ele>8.0</ele><time>2026-04-26T14:52:40.926Z</time></trkpt><trkpt lat="39.99048787309643" lon="8.403523210461207"><ele>7.999999999999999</ele><time>2026-04-26T14:52:41.926Z</time></trkpt><trkpt lat="39.9904585133217" lon="8.403434280147088"><ele>8.0</ele><time>2026-04-26T14:52:42.926Z</time></trkpt><trkpt lat="39.99042825877185" lon="8.40333830682454"><ele>8.0</ele><time>2026-04-26T14:52:43.926Z</time></trkpt><trkpt lat="39.99039967761809" lon="8.403249693619815"><ele>8.0</ele><time>2026-04-26T14:52:44.926Z</time></trkpt><trkpt lat="39.99037351050432" lon="8.403158506043514"><ele>7.999999999999999</ele><time>2026-04-26T14:52:45.926Z</time></trkpt><trkpt lat="39.99035285910393" lon="8.40305975322781"><ele>8.0</ele><time>2026-04-26T14:52:46.926Z</time></trkpt><trkpt lat="39.99032553803937" lon="8.402956426976932"><ele>7.285714285714286</ele><time>2026-04-26T14:52:47.926Z</time></trkpt><trkpt lat="39.99030303620844" lon="8.402861540101823"><ele>6.57142857142857</ele><time>2026-04-26T14:52:48.926Z</time></trkpt><trkpt lat="39.9902763458175" lon="8.402776774330452"><ele>5.857142857142857</ele><time>2026-04-26T14:52:49.926Z</time></trkpt><trkpt lat="39.99023840932735" lon="8.40268993507386"><ele>5.142857142857142</ele><time>2026-04-26T14:52:50.926Z</time></trkpt><trkpt lat="39.99019828549939" lon="8.402612188721633"><ele>4.428571428571429</ele><time>2026-04-26T14:52:51.926Z</time></trkpt><trkpt lat="39.99016227638305" lon="8.402541605804357"><ele>3.714285714285714</ele><time>2026-04-26T14:52:52.926Z</time></trkpt><trkpt lat="39.99011889751597" lon="8.402469228502945"><ele>3.0</ele><time>2026-04-26T14:52:53.926Z</time></trkpt><trkpt lat="39.990072397625894" lon="8.402404729170629"><ele>3.0</ele><time>2026-04-26T14:52:54.926Z</time></trkpt><trkpt lat="39.990021023713844" lon="8.402347604224689"><ele>3.0</ele><time>2026-04-26T14:52:55.926Z</time></trkpt><trkpt lat="39.98990915030491" lon="8.402289203327301"><ele>3.0</ele><time>2026-04-26T14:52:57.926Z</time></trkpt><trkpt lat="39.98983936220583" lon="8.40227859344921"><ele>3.0</ele><time>2026-04-26T14:52:58.926Z</time></trkpt><trkpt lat="39.98977795510134" lon="8.402255722339355"><ele>3.0</ele><time>2026-04-26T14:52:59.926Z</time></trkpt><trkpt lat="39.98966474387977" lon="8.402226431229673"><ele>3.0</ele><time>2026-04-26T14:53:01.926Z</time></trkpt><trkpt lat="39.98954634692983" lon="8.402246759921473"><ele>5.166666666666666</ele><time>2026-04-26T14:53:03.926Z</time></trkpt><trkpt lat="39.989476211290054" lon="8.402254672886261"><ele>7.333333333333333</ele><time>2026-04-26T14:53:04.926Z</time></trkpt><trkpt lat="39.98939862248812" lon="8.402256209429668"><ele>9.5</ele><time>2026-04-26T14:53:05.926Z</time></trkpt><trkpt lat="39.98932004312177" lon="8.402249199230875"><ele>11.666666666666666</ele><time>2026-04-26T14:53:06.926Z</time></trkpt><trkpt lat="39.98924071356191" lon="8.402243031550915"><ele>13.833333333333332</ele><time>2026-04-26T14:53:07.926Z</time></trkpt><trkpt lat="39.98916172527782" lon="8.402247982378094"><ele>16.0</ele><time>2026-04-26T14:53:08.926Z</time></trkpt><trkpt lat="39.989083743372" lon="8.402251303007988"><ele>16.833333333333332</ele><time>2026-04-26T14:53:09.926Z</time></trkpt><trkpt lat="39.989014078971884" lon="8.402256885693006"><ele>17.666666666666664</ele><time>2026-04-26T14:53:10.926Z</time></trkpt><trkpt lat="39.988945077590856" lon="8.402251432257708"><ele>18.5</ele><time>2026-04-26T14:53:11.926Z</time></trkpt><trkpt lat="39.98887670593198" lon="8.402234154756988"><ele>19.333333333333332</ele><time>2026-04-26T14:53:12.926Z</time></trkpt><trkpt lat="39.98881123111786" lon="8.402208191316575"><ele>20.166666666666668</ele><time>2026-04-26T14:53:13.926Z</time></trkpt><trkpt lat="39.98871221735205" lon="8.40215191420512"><ele>21.0</ele><time>2026-04-26T14:53:15.926Z</time></trkpt><trkpt lat="39.98860943037404" lon="8.402072951680214"><ele>20.166666666666668</ele><time>2026-04-26T14:53:17.926Z</time></trkpt><trkpt lat="39.988539602396386" lon="8.402031959166605"><ele>19.333333333333332</ele><time>2026-04-26T14:53:18.926Z</time></trkpt><trkpt lat="39.988471366587966" lon="8.401993035705399"><ele>18.5</ele><time>2026-04-26T14:53:19.927Z</time></trkpt><trkpt lat="39.98840554409356" lon="8.401950562797166"><ele>17.666666666666664</ele><time>2026-04-26T14:53:20.927Z</time></trkpt><trkpt lat="39.98833952460634" lon="8.401906148115641"><ele>16.833333333333332</ele><time>2026-04-26T14:53:21.927Z</time></trkpt><trkpt lat="39.988272963497195" lon="8.401856757172489"><ele>16.0</ele><time>2026-04-26T14:53:22.927Z</time></trkpt><trkpt lat="39.98820157785694" lon="8.401804400704133"><ele>15.999999999999998</ele><time>2026-04-26T14:53:23.927Z</time></trkpt><trkpt lat="39.98813049704283" lon="8.401757334884493"><ele>16.0</ele><time>2026-04-26T14:53:24.927Z</time></trkpt><trkpt lat="39.9880571906477" lon="8.401710704139026"><ele>16.0</ele><time>2026-04-26T14:53:25.927Z</time></trkpt><trkpt lat="39.98798556929362" lon="8.401656945865899"><ele>16.0</ele><time>2026-04-26T14:53:26.927Z</time></trkpt><trkpt lat="39.987917456190296" lon="8.401594273179498"><ele>15.999999999999998</ele><time>2026-04-26T14:53:27.927Z</time></trkpt><trkpt lat="39.98784928248946" lon="8.401536645485779"><ele>16.0</ele><time>2026-04-26T14:53:28.927Z</time></trkpt><trkpt lat="39.9877900831261" lon="8.401480595650234"><ele>15.999999999999998</ele><time>2026-04-26T14:53:29.927Z</time></trkpt><trkpt lat="39.98772754281667" lon="8.401428211958915"><ele>16.0</ele><time>2026-04-26T14:53:30.927Z</time></trkpt><trkpt lat="39.987658587961214" lon="8.401366135877545"><ele>16.0</ele><time>2026-04-26T14:53:31.927Z</time></trkpt><trkpt lat="39.98759995281536" lon="8.401304706939245"><ele>16.0</ele><time>2026-04-26T14:53:32.927Z</time></trkpt><trkpt lat="39.9875337508189" lon="8.401238455432766"><ele>15.999999999999998</ele><time>2026-04-26T14:53:33.927Z</time></trkpt><trkpt lat="39.98746208934562" lon="8.401176514211409"><ele>16.0</ele><time>2026-04-26T14:53:34.927Z</time></trkpt><trkpt lat="39.987389550008615" lon="8.40111742118545"><ele>15.666666666666666</ele><time>2026-04-26T14:53:35.927Z</time></trkpt><trkpt lat="39.987324446349234" lon="8.401058431437134"><ele>15.333333333333332</ele><time>2026-04-26T14:53:36.927Z</time></trkpt><trkpt lat="39.98725260856569" lon="8.401003528504875"><ele>15.0</ele><time>2026-04-26T14:53:37.927Z</time></trkpt><trkpt lat="39.98717728654158" lon="8.400943389015753"><ele>14.666666666666668</ele><time>2026-04-26T14:53:38.927Z</time></trkpt><trkpt lat="39.98710970434925" lon="8.400879818719991"><ele>14.333333333333334</ele><time>2026-04-26T14:53:39.927Z</time></trkpt><trkpt lat="39.98703886283164" lon="8.400807027075908"><ele>14.0</ele><time>2026-04-26T14:53:40.927Z</time></trkpt><trkpt lat="39.98696652240776" lon="8.40073233047904"><ele>14.0</ele><time>2026-04-26T14:53:41.927Z</time></trkpt><trkpt lat="39.98689202820571" lon="8.400653390817267"><ele>13.999999999999998</ele><time>2026-04-26T14:53:42.927Z</time></trkpt><trkpt lat="39.98681664083511" lon="8.400577665084949"><ele>13.999999999999998</ele><time>2026-04-26T14:53:43.927Z</time></trkpt><trkpt lat="39.98674451685119" lon="8.40049915410797"><ele>14.0</ele><time>2026-04-26T14:53:44.927Z</time></trkpt><trkpt lat="39.98667559115732" lon="8.400418820508024"><ele>14.0</ele><time>2026-04-26T14:53:45.927Z</time></trkpt><trkpt lat="39.98660280683669" lon="8.400339599553662"><ele>14.0</ele><time>2026-04-26T14:53:46.927Z</time></trkpt><trkpt lat="39.98652517267498" lon="8.400251150652055"><ele>13.999999999999998</ele><time>2026-04-26T14:53:47.927Z</time></trkpt><trkpt lat="39.98645140028062" lon="8.40016819746878"><ele>13.999999999999998</ele><time>2026-04-26T14:53:48.927Z</time></trkpt><trkpt lat="39.98637276873728" lon="8.40008753034202"><ele>14.0</ele><time>2026-04-26T14:53:49.927Z</time></trkpt><trkpt lat="39.98629570359589" lon="8.40001338666662"><ele>14.0</ele><time>2026-04-26T14:53:50.927Z</time></trkpt><trkpt lat="39.98623106060287" lon="8.399947701195895"><ele>14.0</ele><time>2026-04-26T14:53:51.927Z</time></trkpt><trkpt lat="39.98616256846378" lon="8.399875112569646"><ele>13.999999999999998</ele><time>2026-04-26T14:53:52.926Z</time></trkpt><trkpt lat="39.98608408517161" lon="8.399804931081274"><ele>13.999999999999998</ele><time>2026-04-26T14:53:53.926Z</time></trkpt><trkpt lat="39.98603107272094" lon="8.399693129889187"><ele>14.0</ele><time>2026-04-26T14:53:54.926Z</time></trkpt><trkpt lat="39.98595679828977" lon="8.399620947346966"><ele>14.0</ele><time>2026-04-26T14:53:55.926Z</time></trkpt><trkpt lat="39.985884269099" lon="8.399553332096012"><ele>13.833333333333334</ele><time>2026-04-26T14:53:56.927Z</time></trkpt><trkpt lat="39.985802640780456" lon="8.399505129555163"><ele>13.666666666666668</ele><time>2026-04-26T14:53:57.927Z</time></trkpt><trkpt lat="39.98574205818838" lon="8.399440864882255"><ele>13.5</ele><time>2026-04-26T14:53:58.926Z</time></trkpt><trkpt lat="39.98567239260382" lon="8.399388581504432"><ele>13.333333333333332</ele><time>2026-04-26T14:53:59.926Z</time></trkpt><trkpt lat="39.985598137085404" lon="8.399321570723753"><ele>13.166666666666666</ele><time>2026-04-26T14:54:00.926Z</time></trkpt><trkpt lat="39.98550907944492" lon="8.399279012619012"><ele>13.0</ele><time>2026-04-26T14:54:01.927Z</time></trkpt><trkpt lat="39.98542146166163" lon="8.399238832302284"><ele>13.0</ele><time>2026-04-26T14:54:02.926Z</time></trkpt><trkpt lat="39.985337775786796" lon="8.3992004551044"><ele>13.0</ele><time>2026-04-26T14:54:03.926Z</time></trkpt><trkpt lat="39.98525949825722" lon="8.399164558099201"><ele>13.0</ele><time>2026-04-26T14:54:04.927Z</time></trkpt><trkpt lat="39.98518154585454" lon="8.399128823968843"><ele>13.0</ele><time>2026-04-26T14:54:05.926Z</time></trkpt><trkpt lat="39.985063345496755" lon="8.399205659592836"><ele>13.0</ele><time>2026-04-26T14:54:06.926Z</time></trkpt><trkpt lat="39.98496212893835" lon="8.399195839913888"><ele>13.666666666666666</ele><time>2026-04-26T14:54:07.926Z</time></trkpt><trkpt lat="39.98486325363968" lon="8.399168993323132"><ele>14.333333333333332</ele><time>2026-04-26T14:54:08.926Z</time></trkpt><trkpt lat="39.9847737194278" lon="8.399139561734327"><ele>15.0</ele><time>2026-04-26T14:54:09.926Z</time></trkpt><trkpt lat="39.9846903797721" lon="8.399126890071859"><ele>15.666666666666668</ele><time>2026-04-26T14:54:10.926Z</time></trkpt><trkpt lat="39.984608814788594" lon="8.399131941132428"><ele>16.333333333333336</ele><time>2026-04-26T14:54:11.926Z</time></trkpt><trkpt lat="39.984526417983254" lon="8.399143098066919"><ele>17.0</ele><time>2026-04-26T14:54:12.926Z</time></trkpt><trkpt lat="39.98444975546545" lon="8.399164144576009"><ele>16.999999999999996</ele><time>2026-04-26T14:54:13.926Z</time></trkpt><trkpt lat="39.984370217708005" lon="8.399194993285215"><ele>17.0</ele><time>2026-04-26T14:54:14.926Z</time></trkpt><trkpt lat="39.984296955966826" lon="8.399236312444884"><ele>17.0</ele><time>2026-04-26T14:54:15.926Z</time></trkpt><trkpt lat="39.98423837031177" lon="8.399285652123076"><ele>17.0</ele><time>2026-04-26T14:54:16.926Z</time></trkpt><trkpt lat="39.98418216887333" lon="8.399340198432004"><ele>17.0</ele><time>2026-04-26T14:54:17.926Z</time></trkpt><trkpt lat="39.984131363995836" lon="8.399399424541414"><ele>16.999999999999996</ele><time>2026-04-26T14:54:18.926Z</time></trkpt><trkpt lat="39.98408761246148" lon="8.3994604750276"><ele>17.0</ele><time>2026-04-26T14:54:19.927Z</time></trkpt><trkpt lat="39.984036300577515" lon="8.399510125303044"><ele>16.5</ele><time>2026-04-26T14:54:20.927Z</time></trkpt><trkpt lat="39.983975626192404" lon="8.399539478377037"><ele>16.0</ele><time>2026-04-26T14:54:21.927Z</time></trkpt><trkpt lat="39.983907685702235" lon="8.399545393091568"><ele>15.5</ele><time>2026-04-26T14:54:22.927Z</time></trkpt><trkpt lat="39.98383284374099" lon="8.399531676252263"><ele>15.0</ele><time>2026-04-26T14:54:23.927Z</time></trkpt><trkpt lat="39.98375334060216" lon="8.399508254344974"><ele>14.500000000000002</ele><time>2026-04-26T14:54:24.927Z</time></trkpt><trkpt lat="39.98366464785772" lon="8.399474694591493"><ele>14.0</ele><time>2026-04-26T14:54:25.927Z</time></trkpt><trkpt lat="39.9835767725403" lon="8.399434917534927"><ele>14.0</ele><time>2026-04-26T14:54:26.927Z</time></trkpt><trkpt lat="39.983485732677515" lon="8.399386267894132"><ele>13.999999999999998</ele><time>2026-04-26T14:54:27.927Z</time></trkpt><trkpt lat="39.98339804354401" lon="8.399339142818363"><ele>13.999999999999998</ele><time>2026-04-26T14:54:28.927Z</time></trkpt><trkpt lat="39.983325071604135" lon="8.399289754955316"><ele>14.0</ele><time>2026-04-26T14:54:29.927Z</time></trkpt><trkpt lat="39.983281733210475" lon="8.39918467309892"><ele>14.0</ele><time>2026-04-26T14:54:30.927Z</time></trkpt><trkpt lat="39.9831695118958" lon="8.399113806412336"><ele>14.285714285714285</ele><time>2026-04-26T14:54:32.927Z</time></trkpt><trkpt lat="39.98310448632354" lon="8.399077251656225"><ele>14.571428571428571</ele><time>2026-04-26T14:54:33.927Z</time></trkpt><trkpt lat="39.9830285275257" lon="8.399070144481573"><ele>14.857142857142858</ele><time>2026-04-26T14:54:34.927Z</time></trkpt><trkpt lat="39.98296142619724" lon="8.39901903779721"><ele>15.142857142857142</ele><time>2026-04-26T14:54:35.927Z</time></trkpt><trkpt lat="39.98290157260637" lon="8.398957563954449"><ele>15.428571428571427</ele><time>2026-04-26T14:54:36.927Z</time></trkpt><trkpt lat="39.982871682840056" lon="8.398874113850235"><ele>15.714285714285714</ele><time>2026-04-26T14:54:37.927Z</time></trkpt><trkpt lat="39.98282407841436" lon="8.39881634447336"><ele>16.0</ele><time>2026-04-26T14:54:38.927Z</time></trkpt><trkpt lat="39.982787759449" lon="8.39873883004182"><ele>15.833333333333332</ele><time>2026-04-26T14:54:39.927Z</time></trkpt><trkpt lat="39.98276816226356" lon="8.398649997837307"><ele>15.666666666666666</ele><time>2026-04-26T14:54:40.927Z</time></trkpt><trkpt lat="39.9827230721457" lon="8.398561790608621"><ele>15.5</ele><time>2026-04-26T14:54:41.927Z</time></trkpt><trkpt lat="39.98266438634305" lon="8.398479075164644"><ele>15.333333333333332</ele><time>2026-04-26T14:54:42.927Z</time></trkpt><trkpt lat="39.98260274530683" lon="8.398409203928066"><ele>15.166666666666666</ele><time>2026-04-26T14:54:43.927Z</time></trkpt><trkpt lat="39.98253830702183" lon="8.398344251296042"><ele>15.0</ele><time>2026-04-26T14:54:44.927Z</time></trkpt><trkpt lat="39.98247119495719" lon="8.398276012605779"><ele>15.0</ele><time>2026-04-26T14:54:45.927Z</time></trkpt><trkpt lat="39.98240015358025" lon="8.398213776660961"><ele>15.0</ele><time>2026-04-26T14:54:46.927Z</time></trkpt><trkpt lat="39.98233522948433" lon="8.398138872407568"><ele>15.0</ele><time>2026-04-26T14:54:47.927Z</time></trkpt><trkpt lat="39.98227766215526" lon="8.398065454876974"><ele>15.0</ele><time>2026-04-26T14:54:48.927Z</time></trkpt><trkpt lat="39.98222085478589" lon="8.397994877003262"><ele>15.0</ele><time>2026-04-26T14:54:49.927Z</time></trkpt><trkpt lat="39.98216687208029" lon="8.397935721044036"><ele>15.0</ele><time>2026-04-26T14:54:50.927Z</time></trkpt><trkpt lat="39.98211253937899" lon="8.397878716846902"><ele>13.666666666666666</ele><time>2026-04-26T14:54:51.927Z</time></trkpt><trkpt lat="39.9820630714275" lon="8.397827840221058"><ele>12.333333333333334</ele><time>2026-04-26T14:54:52.927Z</time></trkpt><trkpt lat="39.9819714549262" lon="8.397739373844335"><ele>11.0</ele><time>2026-04-26T14:54:54.927Z</time></trkpt><trkpt lat="39.98191507077393" lon="8.397690443737408"><ele>9.666666666666668</ele><time>2026-04-26T14:54:55.927Z</time></trkpt><trkpt lat="39.98185824110826" lon="8.397642012836696"><ele>8.333333333333334</ele><time>2026-04-26T14:54:56.927Z</time></trkpt><trkpt lat="39.98181773999729" lon="8.397574434407527"><ele>7.0</ele><time>2026-04-26T14:54:57.927Z</time></trkpt><trkpt lat="39.98173785957013" lon="8.397442946730598"><ele>7.166666666666667</ele><time>2026-04-26T14:54:59.927Z</time></trkpt><trkpt lat="39.98167637509102" lon="8.397383353783376"><ele>7.333333333333334</ele><time>2026-04-26T14:55:00.927Z</time></trkpt><trkpt lat="39.98163028652573" lon="8.397305985755857"><ele>7.5</ele><time>2026-04-26T14:55:01.927Z</time></trkpt><trkpt lat="39.98158093512074" lon="8.397235947802068"><ele>7.666666666666666</ele><time>2026-04-26T14:55:02.927Z</time></trkpt><trkpt lat="39.98153605398859" lon="8.397151577639354"><ele>7.833333333333333</ele><time>2026-04-26T14:55:03.927Z</time></trkpt><trkpt lat="39.981482399559795" lon="8.39708720583685"><ele>8.0</ele><time>2026-04-26T14:55:04.927Z</time></trkpt><trkpt lat="39.98139320197371" lon="8.396954386906259"><ele>8.0</ele><time>2026-04-26T14:55:06.927Z</time></trkpt><trkpt lat="39.98133152322583" lon="8.3968887310001"><ele>8.0</ele><time>2026-04-26T14:55:07.927Z</time></trkpt><trkpt lat="39.98127696965332" lon="8.396821630512939"><ele>8.0</ele><time>2026-04-26T14:55:08.927Z</time></trkpt><trkpt lat="39.98123802697743" lon="8.39675386408701"><ele>8.0</ele><time>2026-04-26T14:55:09.927Z</time></trkpt><trkpt lat="39.981161139613064" lon="8.39664210525649"><ele>8.0</ele><time>2026-04-26T14:55:11.927Z</time></trkpt><trkpt lat="39.981067614860386" lon="8.396561093072503"><ele>8.0</ele><time>2026-04-26T14:55:13.927Z</time></trkpt></trkseg><trkseg><trkpt lat="39.924824745156094" lon="8.575079508028145"><ele>7.0</ele><time>2026-04-27T07:51:27.998Z</time></trkpt><trkpt lat="39.92491602954443" lon="8.575064754806416"><ele>6.999999999999999</ele><time>2026-04-27T07:51:29.998Z</time></trkpt><trkpt lat="39.925044058682865" lon="8.575108897541465"><ele>6.999999999999999</ele><time>2026-04-27T07:51:31.998Z</time></trkpt><trkpt lat="39.925105905218295" lon="8.575171417080986"><ele>7.0</ele><time>2026-04-27T07:51:32.998Z</time></trkpt><trkpt lat="39.92516149206491" lon="8.57523503519615"><ele>7.0</ele><time>2026-04-27T07:51:33.998Z</time></trkpt><trkpt lat="39.925230327664984" lon="8.575305116386685"><ele>7.25</ele><time>2026-04-27T07:51:34.998Z</time></trkpt><trkpt lat="39.925325588282384" lon="8.575392158025974"><ele>7.5</ele><time>2026-04-27T07:51:35.998Z</time></trkpt><trkpt lat="39.92543119825173" lon="8.575486308860398"><ele>7.75</ele><time>2026-04-27T07:51:36.998Z</time></trkpt><trkpt lat="39.92553531440681" lon="8.575581101072398"><ele>8.0</ele><time>2026-04-27T07:51:37.998Z</time></trkpt><trkpt lat="39.92564042183488" lon="8.575678635610943"><ele>8.0</ele><time>2026-04-27T07:51:38.998Z</time></trkpt><trkpt lat="39.925756666427844" lon="8.575785116223575"><ele>8.0</ele><time>2026-04-27T07:51:39.998Z</time></trkpt><trkpt lat="39.92587293494274" lon="8.575898224625611"><ele>8.0</ele><time>2026-04-27T07:51:40.998Z</time></trkpt><trkpt lat="39.9259740280577" lon="8.576026915956357"><ele>8.0</ele><time>2026-04-27T07:51:41.998Z</time></trkpt><trkpt lat="39.926074259600284" lon="8.57616653324998"><ele>8.333333333333332</ele><time>2026-04-27T07:51:42.998Z</time></trkpt><trkpt lat="39.92616659665751" lon="8.57632337904077"><ele>8.666666666666666</ele><time>2026-04-27T07:51:43.998Z</time></trkpt><trkpt lat="39.92624490319169" lon="8.576500593192852"><ele>9.0</ele><time>2026-04-27T07:51:44.998Z</time></trkpt><trkpt lat="39.92632997055069" lon="8.576683051889702"><ele>9.0</ele><time>2026-04-27T07:51:45.998Z</time></trkpt><trkpt lat="39.926395154310846" lon="8.576887914075279"><ele>9.0</ele><time>2026-04-27T07:51:46.998Z</time></trkpt><trkpt lat="39.926489545717274" lon="8.577057305262839"><ele>9.0</ele><time>2026-04-27T07:51:47.998Z</time></trkpt><trkpt lat="39.92656566751338" lon="8.577226760381862"><ele>8.75</ele><time>2026-04-27T07:51:48.998Z</time></trkpt><trkpt lat="39.92664153120692" lon="8.577392553083698"><ele>8.5</ele><time>2026-04-27T07:51:49.998Z</time></trkpt><trkpt lat="39.92670738675021" lon="8.577551074572183"><ele>8.25</ele><time>2026-04-27T07:51:50.998Z</time></trkpt><trkpt lat="39.926757666613874" lon="8.577695416093439"><ele>8.0</ele><time>2026-04-27T07:51:51.998Z</time></trkpt><trkpt lat="39.92679477985928" lon="8.577832232033154"><ele>8.4</ele><time>2026-04-27T07:51:52.998Z</time></trkpt><trkpt lat="39.926802766434506" lon="8.577974430048416"><ele>8.8</ele><time>2026-04-27T07:51:53.998Z</time></trkpt><trkpt lat="39.92681447200585" lon="8.578097151678065"><ele>9.2</ele><time>2026-04-27T07:51:54.998Z</time></trkpt><trkpt lat="39.92676622064944" lon="8.578216406940676"><ele>9.6</ele><time>2026-04-27T07:51:55.998Z</time></trkpt><trkpt lat="39.92673289018225" lon="8.578355468313895"><ele>10.0</ele><time>2026-04-27T07:51:56.998Z</time></trkpt><trkpt lat="39.926696316506415" lon="8.578486009391165"><ele>10.0</ele><time>2026-04-27T07:51:57.998Z</time></trkpt><trkpt lat="39.9266537051119" lon="8.578612704479546"><ele>10.0</ele><time>2026-04-27T07:51:58.998Z</time></trkpt><trkpt lat="39.92659018556402" lon="8.578709589982191"><ele>10.0</ele><time>2026-04-27T07:51:59.998Z</time></trkpt><trkpt lat="39.92652738747435" lon="8.578776931188925"><ele>10.0</ele><time>2026-04-27T07:52:00.998Z</time></trkpt><trkpt lat="39.9264286182027" lon="8.578790290237743"><ele>10.0</ele><time>2026-04-27T07:52:01.998Z</time></trkpt><trkpt lat="39.92634824446069" lon="8.57884833094081"><ele>9.8</ele><time>2026-04-27T07:52:02.998Z</time></trkpt><trkpt lat="39.926255001699694" lon="8.578903673931807"><ele>9.6</ele><time>2026-04-27T07:52:03.998Z</time></trkpt><trkpt lat="39.92616896698005" lon="8.57895392605827"><ele>9.4</ele><time>2026-04-27T07:52:04.998Z</time></trkpt><trkpt lat="39.92606620594147" lon="8.579016051385363"><ele>9.2</ele><time>2026-04-27T07:52:05.998Z</time></trkpt><trkpt lat="39.925962529332935" lon="8.579068921112539"><ele>9.0</ele><time>2026-04-27T07:52:06.998Z</time></trkpt><trkpt lat="39.925852133527926" lon="8.579135186649346"><ele>8.75</ele><time>2026-04-27T07:52:07.998Z</time></trkpt><trkpt lat="39.925740462484534" lon="8.579207693628268"><ele>8.5</ele><time>2026-04-27T07:52:08.998Z</time></trkpt><trkpt lat="39.92562493553113" lon="8.579281801376585"><ele>8.25</ele><time>2026-04-27T07:52:09.998Z</time></trkpt><trkpt lat="39.9255069405665" lon="8.579339675458794"><ele>8.0</ele><time>2026-04-27T07:52:10.998Z</time></trkpt><trkpt lat="39.92538015531329" lon="8.579415693360186"><ele>8.0</ele><time>2026-04-27T07:52:11.998Z</time></trkpt><trkpt lat="39.925250022894154" lon="8.579500642176303"><ele>8.0</ele><time>2026-04-27T07:52:12.998Z</time></trkpt><trkpt lat="39.9250916847102" lon="8.579590589397325"><ele>8.0</ele><time>2026-04-27T07:52:13.998Z</time></trkpt><trkpt lat="39.924937383508606" lon="8.579682701863735"><ele>7.333333333333333</ele><time>2026-04-27T07:52:14.998Z</time></trkpt><trkpt lat="39.92478292063741" lon="8.5797826321397"><ele>6.666666666666666</ele><time>2026-04-27T07:52:15.998Z</time></trkpt><trkpt lat="39.924628132158546" lon="8.579880012158673"><ele>6.0</ele><time>2026-04-27T07:52:16.998Z</time></trkpt><trkpt lat="39.92446606688686" lon="8.579975059068822"><ele>6.0</ele><time>2026-04-27T07:52:17.998Z</time></trkpt><trkpt lat="39.92429378090021" lon="8.580072252007305"><ele>6.0</ele><time>2026-04-27T07:52:18.998Z</time></trkpt><trkpt lat="39.92412739598877" lon="8.580166468407734"><ele>6.0</ele><time>2026-04-27T07:52:19.998Z</time></trkpt><trkpt lat="39.92395841283891" lon="8.580267313392326"><ele>5.666666666666667</ele><time>2026-04-27T07:52:20.998Z</time></trkpt><trkpt lat="39.92378696284816" lon="8.5803702672484"><ele>5.333333333333334</ele><time>2026-04-27T07:52:21.998Z</time></trkpt><trkpt lat="39.9236162146508" lon="8.5804617864992"><ele>5.0</ele><time>2026-04-27T07:52:22.998Z</time></trkpt><trkpt lat="39.923445202099906" lon="8.580557386436244"><ele>5.666666666666667</ele><time>2026-04-27T07:52:23.998Z</time></trkpt><trkpt lat="39.92327609330575" lon="8.58066157722465"><ele>6.333333333333334</ele><time>2026-04-27T07:52:24.998Z</time></trkpt><trkpt lat="39.92311033495964" lon="8.580764714982537"><ele>7.0</ele><time>2026-04-27T07:52:25.998Z</time></trkpt><trkpt lat="39.92294801874201" lon="8.580856521486554"><ele>7.0</ele><time>2026-04-27T07:52:26.998Z</time></trkpt><trkpt lat="39.92278450822413" lon="8.580946065106168"><ele>7.0</ele><time>2026-04-27T07:52:27.998Z</time></trkpt><trkpt lat="39.922616160675645" lon="8.58104382478078"><ele>7.0</ele><time>2026-04-27T07:52:28.998Z</time></trkpt><trkpt lat="39.92244498012828" lon="8.58114217636996"><ele>6.666666666666667</ele><time>2026-04-27T07:52:29.998Z</time></trkpt><trkpt lat="39.922284946893065" lon="8.5812345341412"><ele>6.333333333333334</ele><time>2026-04-27T07:52:30.998Z</time></trkpt><trkpt lat="39.92212028120366" lon="8.581316753623392"><ele>6.0</ele><time>2026-04-27T07:52:31.998Z</time></trkpt><trkpt lat="39.92195633926218" lon="8.581410826745731"><ele>6.0</ele><time>2026-04-27T07:52:32.998Z</time></trkpt><trkpt lat="39.9217923635771" lon="8.581507097769473"><ele>6.0</ele><time>2026-04-27T07:52:33.998Z</time></trkpt><trkpt lat="39.92162312137485" lon="8.581590661022618"><ele>6.0</ele><time>2026-04-27T07:52:34.998Z</time></trkpt><trkpt lat="39.92144853193402" lon="8.581684032891669"><ele>5.666666666666667</ele><time>2026-04-27T07:52:35.998Z</time></trkpt><trkpt lat="39.921270022076605" lon="8.58178259045351"><ele>5.333333333333334</ele><time>2026-04-27T07:52:36.998Z</time></trkpt><trkpt lat="39.921087882441405" lon="8.581876071102405"><ele>5.0</ele><time>2026-04-27T07:52:37.998Z</time></trkpt><trkpt lat="39.92090595376679" lon="8.581970701326846"><ele>5.666666666666667</ele><time>2026-04-27T07:52:38.998Z</time></trkpt><trkpt lat="39.92072299463636" lon="8.58206996810421"><ele>6.333333333333334</ele><time>2026-04-27T07:52:39.998Z</time></trkpt><trkpt lat="39.92054094879931" lon="8.582168870936957"><ele>7.0</ele><time>2026-04-27T07:52:40.998Z</time></trkpt><trkpt lat="39.92035695785089" lon="8.582268083757729"><ele>7.0</ele><time>2026-04-27T07:52:41.998Z</time></trkpt><trkpt lat="39.92017142040069" lon="8.582370729219706"><ele>7.0</ele><time>2026-04-27T07:52:42.998Z</time></trkpt><trkpt lat="39.91998834105349" lon="8.58246965234477"><ele>7.0</ele><time>2026-04-27T07:52:43.998Z</time></trkpt><trkpt lat="39.91980375643049" lon="8.582567785789113"><ele>6.666666666666667</ele><time>2026-04-27T07:52:44.998Z</time></trkpt><trkpt lat="39.91961270542033" lon="8.582673195292516"><ele>6.333333333333334</ele><time>2026-04-27T07:52:45.998Z</time></trkpt><trkpt lat="39.91942182409333" lon="8.582775730796397"><ele>6.0</ele><time>2026-04-27T07:52:46.998Z</time></trkpt><trkpt lat="39.91923251300251" lon="8.582876406419839"><ele>5.333333333333333</ele><time>2026-04-27T07:52:47.998Z</time></trkpt><trkpt lat="39.91904744149802" lon="8.582971733697285"><ele>4.666666666666666</ele><time>2026-04-27T07:52:48.999Z</time></trkpt><trkpt lat="39.918860018198856" lon="8.583071629348403"><ele>4.0</ele><time>2026-04-27T07:52:49.999Z</time></trkpt><trkpt lat="39.91866852289212" lon="8.58317488441848"><ele>4.0</ele><time>2026-04-27T07:52:50.999Z</time></trkpt><trkpt lat="39.91847899994159" lon="8.583278036129435"><ele>4.0</ele><time>2026-04-27T07:52:51.999Z</time></trkpt><trkpt lat="39.91829059756855" lon="8.583381400674536"><ele>4.0</ele><time>2026-04-27T07:52:52.999Z</time></trkpt><trkpt lat="39.91810824143896" lon="8.583479215067737"><ele>4.333333333333333</ele><time>2026-04-27T07:52:53.999Z</time></trkpt><trkpt lat="39.91793647259336" lon="8.583573364100232"><ele>4.666666666666667</ele><time>2026-04-27T07:52:54.999Z</time></trkpt><trkpt lat="39.917769637396695" lon="8.583666992039559"><ele>5.0</ele><time>2026-04-27T07:52:55.999Z</time></trkpt><trkpt lat="39.91761137371765" lon="8.58374906610554"><ele>5.333333333333334</ele><time>2026-04-27T07:52:56.999Z</time></trkpt><trkpt lat="39.91746211757765" lon="8.583833651651224"><ele>5.666666666666667</ele><time>2026-04-27T07:52:57.999Z</time></trkpt><trkpt lat="39.9173156511251" lon="8.583912695940647"><ele>6.0</ele><time>2026-04-27T07:52:58.999Z</time></trkpt><trkpt lat="39.917172708199516" lon="8.583993689632376"><ele>6.0</ele><time>2026-04-27T07:52:59.999Z</time></trkpt><trkpt lat="39.91703306901503" lon="8.584091897623681"><ele>6.0</ele><time>2026-04-27T07:53:00.999Z</time></trkpt><trkpt lat="39.91689190779955" lon="8.584192999638654"><ele>6.0</ele><time>2026-04-27T07:53:01.999Z</time></trkpt><trkpt lat="39.91674423080561" lon="8.584299332826914"><ele>6.0</ele><time>2026-04-27T07:53:02.999Z</time></trkpt><trkpt lat="39.916599136095" lon="8.584405755793025"><ele>6.0</ele><time>2026-04-27T07:53:03.999Z</time></trkpt><trkpt lat="39.916467756804515" lon="8.584490149926285"><ele>6.0</ele><time>2026-04-27T07:53:04.999Z</time></trkpt><trkpt lat="39.916354656967634" lon="8.58456633892254"><ele>6.0</ele><time>2026-04-27T07:53:05.999Z</time></trkpt><trkpt lat="39.91625252773744" lon="8.584628743849597"><ele>6.0</ele><time>2026-04-27T07:53:06.999Z</time></trkpt><trkpt lat="39.916162323442485" lon="8.584686884623988"><ele>6.0</ele><time>2026-04-27T07:53:07.999Z</time></trkpt><trkpt lat="39.91607652865972" lon="8.584738915356466"><ele>6.0</ele><time>2026-04-27T07:53:08.999Z</time></trkpt><trkpt lat="39.915993227001685" lon="8.584786623543282"><ele>6.0</ele><time>2026-04-27T07:53:09.999Z</time></trkpt><trkpt lat="39.91591873711173" lon="8.58483026279469"><ele>6.0</ele><time>2026-04-27T07:53:10.999Z</time></trkpt><trkpt lat="39.91584619329886" lon="8.58488157342944"><ele>6.142857142857142</ele><time>2026-04-27T07:53:11.999Z</time></trkpt><trkpt lat="39.91578244067362" lon="8.584923902223283"><ele>6.285714285714286</ele><time>2026-04-27T07:53:12.999Z</time></trkpt><trkpt lat="39.9157244607954" lon="8.584965150460024"><ele>6.428571428571429</ele><time>2026-04-27T07:53:13.999Z</time></trkpt><trkpt lat="39.915662321202845" lon="8.585007484812166"><ele>6.571428571428571</ele><time>2026-04-27T07:53:14.998Z</time></trkpt><trkpt lat="39.91560000678038" lon="8.58504520241096"><ele>6.714285714285714</ele><time>2026-04-27T07:53:15.998Z</time></trkpt><trkpt lat="39.91554195851771" lon="8.585079497352067"><ele>6.857142857142857</ele><time>2026-04-27T07:53:16.998Z</time></trkpt><trkpt lat="39.91545898082494" lon="8.585127111911225"><ele>7.0</ele><time>2026-04-27T07:53:18.998Z</time></trkpt><trkpt lat="39.9153431665222" lon="8.585200624062184"><ele>7.000000000000001</ele><time>2026-04-27T07:53:20.998Z</time></trkpt><trkpt lat="39.91527369140092" lon="8.585245556954852"><ele>7.0</ele><time>2026-04-27T07:53:21.998Z</time></trkpt><trkpt lat="39.915188311320094" lon="8.585297010628805"><ele>7.0</ele><time>2026-04-27T07:53:22.998Z</time></trkpt><trkpt lat="39.915107306759154" lon="8.585346745506683"><ele>7.0</ele><time>2026-04-27T07:53:23.997Z</time></trkpt><trkpt lat="39.91504013100454" lon="8.585391055385019"><ele>7.000000000000001</ele><time>2026-04-27T07:53:24.997Z</time></trkpt><trkpt lat="39.914986607270734" lon="8.58543605689462"><ele>7.0</ele><time>2026-04-27T07:53:25.997Z</time></trkpt><trkpt lat="39.91488626254794" lon="8.585479343850873"><ele>7.166666666666667</ele><time>2026-04-27T07:53:27.998Z</time></trkpt><trkpt lat="39.91480460121869" lon="8.585539875583764"><ele>7.333333333333334</ele><time>2026-04-27T07:53:29.998Z</time></trkpt><trkpt lat="39.91477977402497" lon="8.585632903931536"><ele>7.5</ele><time>2026-04-27T07:53:31.998Z</time></trkpt><trkpt lat="39.914806753993" lon="8.585737861665608"><ele>7.666666666666666</ele><time>2026-04-27T07:53:33.998Z</time></trkpt><trkpt lat="39.91483888082076" lon="8.585832847762275"><ele>7.833333333333333</ele><time>2026-04-27T07:53:34.998Z</time></trkpt><trkpt lat="39.91486449891905" lon="8.585940339593964"><ele>8.0</ele><time>2026-04-27T07:53:35.998Z</time></trkpt><trkpt lat="39.914871842919645" lon="8.586041925361872"><ele>8.0</ele><time>2026-04-27T07:53:36.998Z</time></trkpt><trkpt lat="39.91491774205981" lon="8.586168194610291"><ele>8.0</ele><time>2026-04-27T07:53:38.998Z</time></trkpt><trkpt lat="39.91493092552453" lon="8.58627085185446"><ele>8.0</ele><time>2026-04-27T07:53:40.998Z</time></trkpt><trkpt lat="39.91495599696389" lon="8.586378340463044"><ele>8.0</ele><time>2026-04-27T07:53:42.998Z</time></trkpt><trkpt lat="39.91498470326622" lon="8.586489166751708"><ele>8.0</ele><time>2026-04-27T07:53:44.998Z</time></trkpt><trkpt lat="39.91501016164863" lon="8.586640360199958"><ele>7.999999999999999</ele><time>2026-04-27T07:53:46.998Z</time></trkpt><trkpt lat="39.91502805557171" lon="8.586735808115796"><ele>8.0</ele><time>2026-04-27T07:53:47.998Z</time></trkpt><trkpt lat="39.915038725419166" lon="8.586840264319148"><ele>8.0</ele><time>2026-04-27T07:53:48.998Z</time></trkpt><trkpt lat="39.91505879728425" lon="8.586956911847466"><ele>8.0</ele><time>2026-04-27T07:53:49.998Z</time></trkpt><trkpt lat="39.915067390515894" lon="8.587067340062884"><ele>7.999999999999999</ele><time>2026-04-27T07:53:50.998Z</time></trkpt><trkpt lat="39.91507179483133" lon="8.5871922080141"><ele>8.0</ele><time>2026-04-27T07:53:51.998Z</time></trkpt><trkpt lat="39.915085099212085" lon="8.58732320152902"><ele>8.0</ele><time>2026-04-27T07:53:52.998Z</time></trkpt><trkpt lat="39.915097629389706" lon="8.587444639042639"><ele>8.0</ele><time>2026-04-27T07:53:53.998Z</time></trkpt><trkpt lat="39.915110164936095" lon="8.587566536175355"><ele>8.0</ele><time>2026-04-27T07:53:54.998Z</time></trkpt><trkpt lat="39.91512237023881" lon="8.58768793295372"><ele>8.0</ele><time>2026-04-27T07:53:55.998Z</time></trkpt><trkpt lat="39.91514295115558" lon="8.58780016495872"><ele>8.0</ele><time>2026-04-27T07:53:56.998Z</time></trkpt><trkpt lat="39.91517580234018" lon="8.587903761456607"><ele>7.666666666666666</ele><time>2026-04-27T07:53:57.998Z</time></trkpt><trkpt lat="39.91522523434583" lon="8.587980265073892"><ele>7.333333333333333</ele><time>2026-04-27T07:53:58.998Z</time></trkpt><trkpt lat="39.91527645346283" lon="8.588102993202234"><ele>7.0</ele><time>2026-04-27T07:54:00.998Z</time></trkpt><trkpt lat="39.91532010743302" lon="8.588208891466715"><ele>6.666666666666666</ele><time>2026-04-27T07:54:02.998Z</time></trkpt><trkpt lat="39.91530151209132" lon="8.58830371776577"><ele>6.333333333333333</ele><time>2026-04-27T07:54:05.998Z</time></trkpt><trkpt lat="39.91523754425933" lon="8.58835411246583"><ele>6.0</ele><time>2026-04-27T07:54:07.998Z</time></trkpt><trkpt lat="39.915179362151484" lon="8.588398055469654"><ele>6.0</ele><time>2026-04-27T07:54:08.998Z</time></trkpt><trkpt lat="39.915103198699924" lon="8.588448286036137"><ele>6.0</ele><time>2026-04-27T07:54:09.998Z</time></trkpt><trkpt lat="39.91502817329667" lon="8.588496305462758"><ele>6.0</ele><time>2026-04-27T07:54:10.998Z</time></trkpt><trkpt lat="39.91495969344499" lon="8.588546623225897"><ele>6.0</ele><time>2026-04-27T07:54:11.998Z</time></trkpt><trkpt lat="39.91490323076517" lon="8.588588864221293"><ele>6.0</ele><time>2026-04-27T07:54:12.998Z</time></trkpt><trkpt lat="39.91483223524644" lon="8.588629352726548"><ele>6.0</ele><time>2026-04-27T07:54:14.998Z</time></trkpt><trkpt lat="39.91476177681305" lon="8.588652617092654"><ele>6.0</ele><time>2026-04-27T07:55:27.997Z</time></trkpt><trkpt lat="39.914678695806145" lon="8.588717779193967"><ele>6.0</ele><time>2026-04-27T07:55:29.998Z</time></trkpt><trkpt lat="39.91461527902072" lon="8.588768457814451"><ele>6.0</ele><time>2026-04-27T07:55:30.997Z</time></trkpt><trkpt lat="39.91455420659106" lon="8.588819260250002"><ele>6.0</ele><time>2026-04-27T07:55:31.997Z</time></trkpt><trkpt lat="39.91448292379715" lon="8.588877328141015"><ele>6.0</ele><time>2026-04-27T07:55:32.998Z</time></trkpt><trkpt lat="39.91438702961015" lon="8.58893035235133"><ele>6.0</ele><time>2026-04-27T07:55:33.997Z</time></trkpt><trkpt lat="39.91431252284562" lon="8.58900520262396"><ele>6.199999999999999</ele><time>2026-04-27T07:55:34.997Z</time></trkpt><trkpt lat="39.91422271427557" lon="8.589070827860676"><ele>6.3999999999999995</ele><time>2026-04-27T07:55:35.997Z</time></trkpt><trkpt lat="39.91411331614392" lon="8.589128062634954"><ele>6.6</ele><time>2026-04-27T07:55:36.997Z</time></trkpt><trkpt lat="39.914036084895294" lon="8.589207078644332"><ele>6.8</ele><time>2026-04-27T07:55:37.997Z</time></trkpt><trkpt lat="39.913954560860056" lon="8.58927465640787"><ele>7.0</ele><time>2026-04-27T07:55:38.997Z</time></trkpt><trkpt lat="39.913869942178046" lon="8.589341632194278"><ele>7.0</ele><time>2026-04-27T07:55:39.997Z</time></trkpt><trkpt lat="39.91379000431892" lon="8.589409657503365"><ele>6.999999999999999</ele><time>2026-04-27T07:55:40.997Z</time></trkpt><trkpt lat="39.913718878230775" lon="8.589475695401799"><ele>6.999999999999999</ele><time>2026-04-27T07:55:41.997Z</time></trkpt><trkpt lat="39.91364323532118" lon="8.589520187321412"><ele>7.0</ele><time>2026-04-27T07:55:43.997Z</time></trkpt><trkpt lat="39.91357240891748" lon="8.589547731835633"><ele>7.0</ele><time>2026-04-27T07:55:47.997Z</time></trkpt><trkpt lat="39.913468810830146" lon="8.589419195573681"><ele>7.0</ele><time>2026-04-27T07:55:48.997Z</time></trkpt><trkpt lat="39.91337577983055" lon="8.589394490322508"><ele>7.0</ele><time>2026-04-27T07:55:49.997Z</time></trkpt><trkpt lat="39.91327116598852" lon="8.589350797065284"><ele>7.0</ele><time>2026-04-27T07:55:50.997Z</time></trkpt><trkpt lat="39.91316413254244" lon="8.589311414579006"><ele>7.0</ele><time>2026-04-27T07:55:51.997Z</time></trkpt><trkpt lat="39.912321233402416" lon="8.590125610087057"><ele>7.0</ele><time>2026-04-27T07:55:52.997Z</time></trkpt><trkpt lat="39.91219638508307" lon="8.590149159932698"><ele>7.0</ele><time>2026-04-27T07:55:53.997Z</time></trkpt><trkpt lat="39.91207554178193" lon="8.590169635688788"><ele>7.0</ele><time>2026-04-27T07:55:54.997Z</time></trkpt><trkpt lat="39.91195256207824" lon="8.59019255656155"><ele>7.0</ele><time>2026-04-27T07:55:55.997Z</time></trkpt><trkpt lat="39.91183275807538" lon="8.590221357392121"><ele>6.8</ele><time>2026-04-27T07:55:56.997Z</time></trkpt><trkpt lat="39.91172398319574" lon="8.590246217315613"><ele>6.6</ele><time>2026-04-27T07:55:57.997Z</time></trkpt><trkpt lat="39.91163376911337" lon="8.590269654369674"><ele>6.3999999999999995</ele><time>2026-04-27T07:55:58.997Z</time></trkpt><trkpt lat="39.91155779226735" lon="8.590290286632337"><ele>6.199999999999999</ele><time>2026-04-27T07:55:59.997Z</time></trkpt><trkpt lat="39.91145780861977" lon="8.590304377758686"><ele>6.0</ele><time>2026-04-27T07:56:01.997Z</time></trkpt><trkpt lat="39.91144183762073" lon="8.590514489537535"><ele>6.0</ele><time>2026-04-27T07:56:03.997Z</time></trkpt><trkpt lat="39.911414308838516" lon="8.590623833121073"><ele>6.0</ele><time>2026-04-27T07:56:04.997Z</time></trkpt><trkpt lat="39.91139845039834" lon="8.590747589719289"><ele>6.0</ele><time>2026-04-27T07:56:05.997Z</time></trkpt><trkpt lat="39.91138007495272" lon="8.590879985922058"><ele>6.0</ele><time>2026-04-27T07:56:06.997Z</time></trkpt><trkpt lat="39.91136016083407" lon="8.59101806080389"><ele>6.0</ele><time>2026-04-27T07:56:07.997Z</time></trkpt><trkpt lat="39.91133559527725" lon="8.591158921122904"><ele>5.75</ele><time>2026-04-27T07:56:08.997Z</time></trkpt><trkpt lat="39.91130831304966" lon="8.591299481092117"><ele>5.5</ele><time>2026-04-27T07:56:09.997Z</time></trkpt><trkpt lat="39.91127682200466" lon="8.591440373149776"><ele>5.25</ele><time>2026-04-27T07:56:10.997Z</time></trkpt><trkpt lat="39.91124000771522" lon="8.59158750485395"><ele>5.0</ele><time>2026-04-27T07:56:11.997Z</time></trkpt><trkpt lat="39.9111999808148" lon="8.591736672285668"><ele>5.0</ele><time>2026-04-27T07:56:12.997Z</time></trkpt><trkpt lat="39.911155593306354" lon="8.591895803741467"><ele>5.0</ele><time>2026-04-27T07:56:13.997Z</time></trkpt><trkpt lat="39.91110867045008" lon="8.592045009380852"><ele>5.0</ele><time>2026-04-27T07:56:14.997Z</time></trkpt><trkpt lat="39.91107057342834" lon="8.592182337496808"><ele>5.0</ele><time>2026-04-27T07:56:15.997Z</time></trkpt><trkpt lat="39.91103656294992" lon="8.592300019085659"><ele>5.166666666666667</ele><time>2026-04-27T07:56:16.997Z</time></trkpt><trkpt lat="39.91101239708657" lon="8.592389403438027"><ele>5.333333333333334</ele><time>2026-04-27T07:56:17.997Z</time></trkpt><trkpt lat="39.91097906519456" lon="8.592482997472205"><ele>5.5</ele><time>2026-04-27T07:56:19.997Z</time></trkpt><trkpt lat="39.91093666274265" lon="8.592589681619575"><ele>5.666666666666667</ele><time>2026-04-27T07:56:21.997Z</time></trkpt><trkpt lat="39.91090822590871" lon="8.59267318309015"><ele>5.833333333333333</ele><time>2026-04-27T07:56:22.997Z</time></trkpt><trkpt lat="39.910876857917195" lon="8.592779786930187"><ele>6.0</ele><time>2026-04-27T07:56:23.997Z</time></trkpt><trkpt lat="39.91084707131243" lon="8.592901935624447"><ele>6.199999999999999</ele><time>2026-04-27T07:56:24.997Z</time></trkpt><trkpt lat="39.910813884744876" lon="8.593021909212025"><ele>6.3999999999999995</ele><time>2026-04-27T07:56:25.997Z</time></trkpt><trkpt lat="39.91077602193333" lon="8.593159702394075"><ele>6.6</ele><time>2026-04-27T07:56:26.997Z</time></trkpt><trkpt lat="39.91074020290393" lon="8.593300275732412"><ele>6.8</ele><time>2026-04-27T07:56:27.997Z</time></trkpt><trkpt lat="39.91069697889624" lon="8.593441413728545"><ele>7.0</ele><time>2026-04-27T07:56:28.997Z</time></trkpt><trkpt lat="39.91065693642616" lon="8.59359469288431"><ele>6.8</ele><time>2026-04-27T07:56:29.997Z</time></trkpt><trkpt lat="39.91061592785196" lon="8.593745532215175"><ele>6.6</ele><time>2026-04-27T07:56:30.997Z</time></trkpt><trkpt lat="39.91057748999876" lon="8.593898599409627"><ele>6.3999999999999995</ele><time>2026-04-27T07:56:31.997Z</time></trkpt><trkpt lat="39.9105328355329" lon="8.594026960354453"><ele>6.199999999999999</ele><time>2026-04-27T07:56:32.997Z</time></trkpt><trkpt lat="39.91049906083052" lon="8.594135354563711"><ele>6.0</ele><time>2026-04-27T07:56:33.997Z</time></trkpt><trkpt lat="39.91046554327391" lon="8.594224831511394"><ele>6.0</ele><time>2026-04-27T07:56:34.997Z</time></trkpt><trkpt lat="39.91043252496336" lon="8.59434708889983"><ele>6.0</ele><time>2026-04-27T07:56:36.997Z</time></trkpt><trkpt lat="39.910403955656356" lon="8.59443065396773"><ele>6.0</ele><time>2026-04-27T07:56:38.997Z</time></trkpt><trkpt lat="39.91035166820757" lon="8.594574884856138"><ele>6.0</ele><time>2026-04-27T07:56:40.997Z</time></trkpt><trkpt lat="39.91031714646691" lon="8.594661375638362"><ele>6.0</ele><time>2026-04-27T07:56:41.997Z</time></trkpt><trkpt lat="39.91028341804618" lon="8.594787854271312"><ele>6.0</ele><time>2026-04-27T07:56:42.997Z</time></trkpt><trkpt lat="39.91025448598112" lon="8.59490792553086"><ele>6.0</ele><time>2026-04-27T07:56:43.997Z</time></trkpt><trkpt lat="39.91021185544062" lon="8.595040336744784"><ele>6.0</ele><time>2026-04-27T07:56:44.997Z</time></trkpt><trkpt lat="39.91017157435797" lon="8.59518960846902"><ele>6.0</ele><time>2026-04-27T07:56:45.997Z</time></trkpt><trkpt lat="39.910134806741105" lon="8.595348889703345"><ele>6.0</ele><time>2026-04-27T07:56:46.997Z</time></trkpt><trkpt lat="39.91008120713024" lon="8.595499283545507"><ele>6.0</ele><time>2026-04-27T07:56:47.997Z</time></trkpt><trkpt lat="39.91003554622542" lon="8.59565681007881"><ele>6.0</ele><time>2026-04-27T07:56:48.997Z</time></trkpt><trkpt lat="39.90999968459289" lon="8.595785737787837"><ele>6.0</ele><time>2026-04-27T07:56:49.997Z</time></trkpt><trkpt lat="39.909964834502205" lon="8.595898460700704"><ele>5.833333333333333</ele><time>2026-04-27T07:56:50.997Z</time></trkpt><trkpt lat="39.90993190460464" lon="8.595997658517788"><ele>5.666666666666667</ele><time>2026-04-27T07:56:51.997Z</time></trkpt><trkpt lat="39.909908215877465" lon="8.596078141660415"><ele>5.5</ele><time>2026-04-27T07:56:52.997Z</time></trkpt><trkpt lat="39.90987320664256" lon="8.596172006226501"><ele>5.333333333333334</ele><time>2026-04-27T07:56:54.997Z</time></trkpt><trkpt lat="39.909837425039576" lon="8.596294973666126"><ele>5.166666666666667</ele><time>2026-04-27T07:56:56.997Z</time></trkpt><trkpt lat="39.909810411398354" lon="8.59637795170656"><ele>5.0</ele><time>2026-04-27T07:56:57.997Z</time></trkpt><trkpt lat="39.90978010563716" lon="8.596477204067792"><ele>5.4</ele><time>2026-04-27T07:56:58.997Z</time></trkpt><trkpt lat="39.90975671813613" lon="8.596597525939865"><ele>5.8</ele><time>2026-04-27T07:56:59.997Z</time></trkpt><trkpt lat="39.90972262578107" lon="8.596713684832542"><ele>6.199999999999999</ele><time>2026-04-27T07:57:00.997Z</time></trkpt><trkpt lat="39.90969397718631" lon="8.596833581739658"><ele>6.6</ele><time>2026-04-27T07:57:01.997Z</time></trkpt><trkpt lat="39.90965935929619" lon="8.596960467404939"><ele>7.0</ele><time>2026-04-27T07:57:02.997Z</time></trkpt><trkpt lat="39.909634136337225" lon="8.597045471187506"><ele>7.333333333333334</ele><time>2026-04-27T07:57:03.997Z</time></trkpt><trkpt lat="39.90960219153434" lon="8.597130125522371"><ele>7.666666666666667</ele><time>2026-04-27T07:57:06.997Z</time></trkpt><trkpt lat="39.909576369193175" lon="8.597217007698028"><ele>8.0</ele><time>2026-04-27T07:57:08.997Z</time></trkpt><trkpt lat="39.90954990107521" lon="8.597296459295855"><ele>8.333333333333334</ele><time>2026-04-27T07:57:09.997Z</time></trkpt><trkpt lat="39.909522074447715" lon="8.597390427149135"><ele>8.666666666666666</ele><time>2026-04-27T07:57:10.997Z</time></trkpt><trkpt lat="39.90949223131116" lon="8.597489313049365"><ele>9.0</ele><time>2026-04-27T07:57:11.997Z</time></trkpt><trkpt lat="39.90946224659341" lon="8.597601544907935"><ele>9.0</ele><time>2026-04-27T07:57:12.997Z</time></trkpt><trkpt lat="39.90942929894726" lon="8.597719267418448"><ele>9.0</ele><time>2026-04-27T07:57:13.997Z</time></trkpt><trkpt lat="39.909396378512305" lon="8.59783340629616"><ele>9.0</ele><time>2026-04-27T07:57:14.997Z</time></trkpt><trkpt lat="39.909360124256224" lon="8.597952702523333"><ele>9.0</ele><time>2026-04-27T07:57:15.997Z</time></trkpt><trkpt lat="39.909325275959056" lon="8.598056053673531"><ele>9.0</ele><time>2026-04-27T07:57:16.997Z</time></trkpt><trkpt lat="39.909293105688434" lon="8.598166698112687"><ele>9.0</ele><time>2026-04-27T07:57:17.997Z</time></trkpt><trkpt lat="39.90926272955228" lon="8.598287854242427"><ele>9.0</ele><time>2026-04-27T07:57:18.997Z</time></trkpt><trkpt lat="39.90922652917401" lon="8.598409395573947"><ele>9.0</ele><time>2026-04-27T07:57:19.997Z</time></trkpt><trkpt lat="39.90919157694223" lon="8.598540572919129"><ele>9.0</ele><time>2026-04-27T07:57:20.997Z</time></trkpt><trkpt lat="39.9091488222649" lon="8.598685994678478"><ele>9.0</ele><time>2026-04-27T07:57:21.997Z</time></trkpt><trkpt lat="39.90911034879784" lon="8.598817292267537"><ele>9.4</ele><time>2026-04-27T07:57:22.997Z</time></trkpt><trkpt lat="39.90907861227071" lon="8.598932560769727"><ele>9.8</ele><time>2026-04-27T07:57:23.997Z</time></trkpt><trkpt lat="39.90905024624186" lon="8.59906878034569"><ele>10.200000000000001</ele><time>2026-04-27T07:57:24.997Z</time></trkpt><trkpt lat="39.90900972696552" lon="8.599183534347537"><ele>10.600000000000001</ele><time>2026-04-27T07:57:25.997Z</time></trkpt><trkpt lat="39.90896236348991" lon="8.599279971498076"><ele>11.0</ele><time>2026-04-27T07:57:26.997Z</time></trkpt><trkpt lat="39.90893372130019" lon="8.599363670832783"><ele>11.0</ele><time>2026-04-27T07:57:27.996Z</time></trkpt><trkpt lat="39.90889971589969" lon="8.599476390563822"><ele>11.0</ele><time>2026-04-27T07:57:29.997Z</time></trkpt><trkpt lat="39.908758128622615" lon="8.59944278220298"><ele>11.0</ele><time>2026-04-27T07:57:33.997Z</time></trkpt><trkpt lat="39.90869691464745" lon="8.599399653858084"><ele>11.0</ele><time>2026-04-27T07:57:34.997Z</time></trkpt><trkpt lat="39.90863011174123" lon="8.599365636339899"><ele>11.0</ele><time>2026-04-27T07:57:35.997Z</time></trkpt><trkpt lat="39.9085477595912" lon="8.599331526211929"><ele>11.0</ele><time>2026-04-27T07:57:36.997Z</time></trkpt><trkpt lat="39.90847104832437" lon="8.599293239424746"><ele>11.0</ele><time>2026-04-27T07:57:37.997Z</time></trkpt><trkpt lat="39.90838653533937" lon="8.599248458468143"><ele>11.0</ele><time>2026-04-27T07:57:38.996Z</time></trkpt><trkpt lat="39.908293383907726" lon="8.59919804129265"><ele>11.0</ele><time>2026-04-27T07:57:39.996Z</time></trkpt><trkpt lat="39.90820224165587" lon="8.599169131802938"><ele>11.0</ele><time>2026-04-27T07:57:40.996Z</time></trkpt><trkpt lat="39.908115445398806" lon="8.599121187735872"><ele>10.4</ele><time>2026-04-27T07:57:41.996Z</time></trkpt><trkpt lat="39.908035983571885" lon="8.59909077619784"><ele>9.8</ele><time>2026-04-27T07:57:42.996Z</time></trkpt><trkpt lat="39.90792885093803" lon="8.599036800529545"><ele>9.200000000000001</ele><time>2026-04-27T07:57:44.996Z</time></trkpt><trkpt lat="39.90785539787175" lon="8.599029614912043"><ele>8.600000000000001</ele><time>2026-04-27T07:57:49.996Z</time></trkpt><trkpt lat="39.90775997841266" lon="8.599066264570439"><ele>8.0</ele><time>2026-04-27T07:57:52.996Z</time></trkpt><trkpt lat="39.907712544239" lon="8.59914974657857"><ele>7.999999999999999</ele><time>2026-04-27T07:57:55.996Z</time></trkpt><trkpt lat="39.90766246298115" lon="8.599213788260489"><ele>8.0</ele><time>2026-04-27T07:57:59.996Z</time></trkpt><trkpt lat="39.90760256270979" lon="8.59927618375941"><ele>8.0</ele><time>2026-04-27T07:58:02.997Z</time></trkpt><trkpt lat="39.90752478087883" lon="8.599341321567744"><ele>8.0</ele><time>2026-04-27T07:58:05.997Z</time></trkpt><trkpt lat="39.907463525781175" lon="8.599392619276978"><ele>7.999999999999999</ele><time>2026-04-27T07:58:07.997Z</time></trkpt><trkpt lat="39.907411553638205" lon="8.59944579946888"><ele>8.0</ele><time>2026-04-27T07:58:15.997Z</time></trkpt><trkpt lat="39.907335066708356" lon="8.599482749257321"><ele>7.833333333333333</ele><time>2026-04-27T07:58:22.997Z</time></trkpt><trkpt lat="39.907355067141104" lon="8.599593085758555"><ele>7.666666666666666</ele><time>2026-04-27T07:58:23.997Z</time></trkpt><trkpt lat="39.90730346129806" lon="8.599541054525465"><ele>7.5</ele><time>2026-04-27T07:58:25.997Z</time></trkpt><trkpt lat="39.907246186352864" lon="8.599494466981726"><ele>7.333333333333334</ele><time>2026-04-27T07:58:27.997Z</time></trkpt><trkpt lat="39.90714718981518" lon="8.599505769213685"><ele>7.166666666666667</ele><time>2026-04-27T07:58:29.997Z</time></trkpt><trkpt lat="39.90708479830655" lon="8.599570845097885"><ele>7.0</ele><time>2026-04-27T07:58:30.997Z</time></trkpt><trkpt lat="39.907016825889535" lon="8.599627399009192"><ele>7.000000000000001</ele><time>2026-04-27T07:58:31.997Z</time></trkpt><trkpt lat="39.90694550965557" lon="8.599655680596085"><ele>7.0</ele><time>2026-04-27T07:58:32.997Z</time></trkpt><trkpt lat="39.906869191094586" lon="8.5997081151847"><ele>7.0</ele><time>2026-04-27T07:58:33.997Z</time></trkpt><trkpt lat="39.90678781503522" lon="8.599765799387859"><ele>7.0</ele><time>2026-04-27T07:58:34.997Z</time></trkpt><trkpt lat="39.90670127567322" lon="8.59984771082201"><ele>7.000000000000001</ele><time>2026-04-27T07:58:35.997Z</time></trkpt><trkpt lat="39.90664867190483" lon="8.599925875321615"><ele>7.0</ele><time>2026-04-27T07:58:36.997Z</time></trkpt><trkpt lat="39.90658352795511" lon="8.599980462586014"><ele>7.000000000000001</ele><time>2026-04-27T07:58:37.997Z</time></trkpt><trkpt lat="39.90652746193149" lon="8.600058423445942"><ele>7.0</ele><time>2026-04-27T07:58:38.997Z</time></trkpt><trkpt lat="39.9064812438476" lon="8.600124900671705"><ele>7.0</ele><time>2026-04-27T07:58:39.997Z</time></trkpt><trkpt lat="39.906395674640855" lon="8.600233287941712"><ele>7.0</ele><time>2026-04-27T07:58:41.997Z</time></trkpt><trkpt lat="39.90634944479382" lon="8.60029436342569"><ele>7.000000000000001</ele><time>2026-04-27T07:58:42.997Z</time></trkpt><trkpt lat="39.90630145461237" lon="8.600361426692126"><ele>7.0</ele><time>2026-04-27T07:58:43.997Z</time></trkpt><trkpt lat="39.90624660653662" lon="8.600434686206626"><ele>7.333333333333334</ele><time>2026-04-27T07:58:44.997Z</time></trkpt><trkpt lat="39.90619248240663" lon="8.600518436959911"><ele>7.666666666666667</ele><time>2026-04-27T07:58:45.997Z</time></trkpt><trkpt lat="39.90613673486051" lon="8.600598639021717"><ele>8.0</ele><time>2026-04-27T07:58:46.997Z</time></trkpt><trkpt lat="39.90608709575791" lon="8.600672103135361"><ele>8.333333333333334</ele><time>2026-04-27T07:58:47.997Z</time></trkpt><trkpt lat="39.906035929929736" lon="8.600742887584156"><ele>8.666666666666666</ele><time>2026-04-27T07:58:48.997Z</time></trkpt><trkpt lat="39.90597394315811" lon="8.600844318434737"><ele>9.0</ele><time>2026-04-27T07:58:49.997Z</time></trkpt><trkpt lat="39.90590367774391" lon="8.60094542390361"><ele>9.2</ele><time>2026-04-27T07:58:50.997Z</time></trkpt><trkpt lat="39.905842660755354" lon="8.60103641093539"><ele>9.4</ele><time>2026-04-27T07:58:51.997Z</time></trkpt><trkpt lat="39.90579225342775" lon="8.601133789607685"><ele>9.6</ele><time>2026-04-27T07:58:52.997Z</time></trkpt><trkpt lat="39.905742182613125" lon="8.601233983119277"><ele>9.8</ele><time>2026-04-27T07:58:53.997Z</time></trkpt><trkpt lat="39.90568790278687" lon="8.601331701345465"><ele>10.0</ele><time>2026-04-27T07:58:54.997Z</time></trkpt><trkpt lat="39.90562899910363" lon="8.601449655346347"><ele>10.0</ele><time>2026-04-27T07:58:55.997Z</time></trkpt><trkpt lat="39.905698481955945" lon="8.60134869896149"><ele>10.0</ele><time>2026-04-27T07:58:56.997Z</time></trkpt><trkpt lat="39.90565822295588" lon="8.601446004571597"><ele>10.0</ele><time>2026-04-27T07:58:57.997Z</time></trkpt><trkpt lat="39.90561642526791" lon="8.60154968097736"><ele>10.0</ele><time>2026-04-27T07:58:58.997Z</time></trkpt><trkpt lat="39.905570485184725" lon="8.60165225490904"><ele>10.0</ele><time>2026-04-27T07:58:59.997Z</time></trkpt><trkpt lat="39.90551721903583" lon="8.60176705389789"><ele>10.0</ele><time>2026-04-27T07:59:00.997Z</time></trkpt><trkpt lat="39.905462861105896" lon="8.60188895869661"><ele>10.0</ele><time>2026-04-27T07:59:01.997Z</time></trkpt><trkpt lat="39.90540416424173" lon="8.60202270377831"><ele>10.0</ele><time>2026-04-27T07:59:02.997Z</time></trkpt><trkpt lat="39.905348962337996" lon="8.602147162880396"><ele>10.0</ele><time>2026-04-27T07:59:03.997Z</time></trkpt><trkpt lat="39.905296768574" lon="8.602276761613258"><ele>10.0</ele><time>2026-04-27T07:59:04.997Z</time></trkpt><trkpt lat="39.90525921095645" lon="8.602419324209604"><ele>10.0</ele><time>2026-04-27T07:59:05.997Z</time></trkpt><trkpt lat="39.90523048267759" lon="8.602564784890824"><ele>10.0</ele><time>2026-04-27T07:59:06.997Z</time></trkpt><trkpt lat="39.90520793821838" lon="8.602718361913706"><ele>10.0</ele><time>2026-04-27T07:59:07.997Z</time></trkpt><trkpt lat="39.90518730720734" lon="8.60287153760942"><ele>10.0</ele><time>2026-04-27T07:59:08.997Z</time></trkpt><trkpt lat="39.905164955591715" lon="8.603025264996447"><ele>10.25</ele><time>2026-04-27T07:59:09.997Z</time></trkpt><trkpt lat="39.90514127979614" lon="8.603184348893096"><ele>10.5</ele><time>2026-04-27T07:59:10.997Z</time></trkpt><trkpt lat="39.90511209870142" lon="8.603349014406826"><ele>10.75</ele><time>2026-04-27T07:59:11.997Z</time></trkpt><trkpt lat="39.90508010619896" lon="8.603503176440585"><ele>11.0</ele><time>2026-04-27T07:59:12.997Z</time></trkpt><trkpt lat="39.90504843655474" lon="8.603638762609952"><ele>11.0</ele><time>2026-04-27T07:59:13.997Z</time></trkpt><trkpt lat="39.90501822787334" lon="8.603757958167566"><ele>11.0</ele><time>2026-04-27T07:59:14.997Z</time></trkpt><trkpt lat="39.90498482641764" lon="8.603866264476695"><ele>11.0</ele><time>2026-04-27T07:59:15.997Z</time></trkpt><trkpt lat="39.90493420644014" lon="8.603976278130444"><ele>11.0</ele><time>2026-04-27T07:59:17.997Z</time></trkpt><trkpt lat="39.90488001575812" lon="8.604073497499241"><ele>11.0</ele><time>2026-04-27T07:59:21.997Z</time></trkpt><trkpt lat="39.90485273183162" lon="8.604202221523781"><ele>11.0</ele><time>2026-04-27T07:59:23.997Z</time></trkpt><trkpt lat="39.90482836031988" lon="8.60428062036659"><ele>11.0</ele><time>2026-04-27T07:59:24.997Z</time></trkpt><trkpt lat="39.90477885855351" lon="8.604445383899957"><ele>11.0</ele><time>2026-04-27T07:59:26.997Z</time></trkpt><trkpt lat="39.90475191826152" lon="8.60453409298076"><ele>11.0</ele><time>2026-04-27T07:59:27.997Z</time></trkpt><trkpt lat="39.904726399148515" lon="8.604628981154942"><ele>11.0</ele><time>2026-04-27T07:59:28.997Z</time></trkpt><trkpt lat="39.9046970476605" lon="8.604726240197266"><ele>11.0</ele><time>2026-04-27T07:59:29.997Z</time></trkpt><trkpt lat="39.904666355274706" lon="8.604842252227382"><ele>11.0</ele><time>2026-04-27T07:59:30.997Z</time></trkpt><trkpt lat="39.90462715832096" lon="8.604947991075212"><ele>11.0</ele><time>2026-04-27T07:59:31.996Z</time></trkpt><trkpt lat="39.904595646457665" lon="8.605080257464714"><ele>11.0</ele><time>2026-04-27T07:59:32.996Z</time></trkpt><trkpt lat="39.904563193925554" lon="8.605202528350027"><ele>11.0</ele><time>2026-04-27T07:59:33.996Z</time></trkpt><trkpt lat="39.90453781009295" lon="8.605314458226406"><ele>11.0</ele><time>2026-04-27T07:59:34.996Z</time></trkpt><trkpt lat="39.90451573990716" lon="8.605416594557777"><ele>11.333333333333332</ele><time>2026-04-27T07:59:35.996Z</time></trkpt><trkpt lat="39.90449069351892" lon="8.60551648480595"><ele>11.666666666666666</ele><time>2026-04-27T07:59:36.996Z</time></trkpt><trkpt lat="39.904449214411166" lon="8.605590516300117"><ele>12.0</ele><time>2026-04-27T07:59:37.996Z</time></trkpt><trkpt lat="39.904407452117894" lon="8.605659688513601"><ele>12.333333333333332</ele><time>2026-04-27T07:59:38.996Z</time></trkpt><trkpt lat="39.904375739056235" lon="8.605731903343106"><ele>12.666666666666666</ele><time>2026-04-27T07:59:39.996Z</time></trkpt><trkpt lat="39.904303832019124" lon="8.605773228444102"><ele>13.0</ele><time>2026-04-27T07:59:40.997Z</time></trkpt><trkpt lat="39.904250853971" lon="8.605888516341691"><ele>12.999999999999998</ele><time>2026-04-27T07:59:42.996Z</time></trkpt><trkpt lat="39.90424948001999" lon="8.606015186340743"><ele>13.0</ele><time>2026-04-27T07:59:44.997Z</time></trkpt><trkpt lat="39.90428145659544" lon="8.606099158492489"><ele>13.0</ele><time>2026-04-27T07:59:45.997Z</time></trkpt><trkpt lat="39.90431425324377" lon="8.606196872351534"><ele>13.0</ele><time>2026-04-27T07:59:46.997Z</time></trkpt><trkpt lat="39.90436423850332" lon="8.6062906751799"><ele>12.999999999999998</ele><time>2026-04-27T07:59:47.997Z</time></trkpt><trkpt lat="39.90437926975255" lon="8.606426994767364"><ele>13.0</ele><time>2026-04-27T07:59:48.997Z</time></trkpt><trkpt lat="39.90438575558123" lon="8.606581940596795"><ele>12.75</ele><time>2026-04-27T07:59:49.997Z</time></trkpt><trkpt lat="39.90438674007805" lon="8.606728945542546"><ele>12.5</ele><time>2026-04-27T07:59:50.997Z</time></trkpt><trkpt lat="39.90435885856071" lon="8.606878457752304"><ele>12.25</ele><time>2026-04-27T07:59:51.997Z</time></trkpt><trkpt lat="39.90434384224728" lon="8.60704909275861"><ele>12.0</ele><time>2026-04-27T07:59:52.997Z</time></trkpt><trkpt lat="39.90432855701651" lon="8.607222784024648"><ele>11.666666666666666</ele><time>2026-04-27T07:59:53.997Z</time></trkpt><trkpt lat="39.90431076329981" lon="8.607431168250805"><ele>11.333333333333332</ele><time>2026-04-27T07:59:54.997Z</time></trkpt><trkpt lat="39.90429260131677" lon="8.607655333008386"><ele>11.0</ele><time>2026-04-27T07:59:55.997Z</time></trkpt><trkpt lat="39.904274158464794" lon="8.607882964506269"><ele>11.0</ele><time>2026-04-27T07:59:56.997Z</time></trkpt><trkpt lat="39.90427201625967" lon="8.608094526873293"><ele>11.0</ele><time>2026-04-27T07:59:57.997Z</time></trkpt><trkpt lat="39.9042442812123" lon="8.608305386704721"><ele>11.0</ele><time>2026-04-27T07:59:58.997Z</time></trkpt><trkpt lat="39.90423191616683" lon="8.608510456991187"><ele>11.5</ele><time>2026-04-27T07:59:59.997Z</time></trkpt><trkpt lat="39.90422266477525" lon="8.60870743943014"><ele>12.0</ele><time>2026-04-27T08:00:00.997Z</time></trkpt><trkpt lat="39.904216334823495" lon="8.608892972540856"><ele>12.5</ele><time>2026-04-27T08:00:01.997Z</time></trkpt><trkpt lat="39.904214092747765" lon="8.609080064114279"><ele>13.0</ele><time>2026-04-27T08:00:02.997Z</time></trkpt><trkpt lat="39.90423265790939" lon="8.609270421399703"><ele>13.0</ele><time>2026-04-27T08:00:03.997Z</time></trkpt><trkpt lat="39.90423361220988" lon="8.609467836465905"><ele>13.0</ele><time>2026-04-27T08:00:04.997Z</time></trkpt><trkpt lat="39.90423371046231" lon="8.609668360665278"><ele>13.0</ele><time>2026-04-27T08:00:05.997Z</time></trkpt><trkpt lat="39.90425537520279" lon="8.60986917532926"><ele>12.666666666666666</ele><time>2026-04-27T08:00:06.997Z</time></trkpt><trkpt lat="39.9042780914635" lon="8.610067257584047"><ele>12.333333333333332</ele><time>2026-04-27T08:00:07.997Z</time></trkpt><trkpt lat="39.90429816227691" lon="8.610259030438703"><ele>12.0</ele><time>2026-04-27T08:00:08.997Z</time></trkpt><trkpt lat="39.904319080223125" lon="8.61045616906519"><ele>12.5</ele><time>2026-04-27T08:00:09.997Z</time></trkpt><trkpt lat="39.904343466673225" lon="8.610637120462602"><ele>13.0</ele><time>2026-04-27T08:00:10.997Z</time></trkpt><trkpt lat="39.90436402179355" lon="8.610806845521353"><ele>13.5</ele><time>2026-04-27T08:00:11.997Z</time></trkpt><trkpt lat="39.904384639519165" lon="8.610977338621149"><ele>14.0</ele><time>2026-04-27T08:00:12.997Z</time></trkpt><trkpt lat="39.904406501329774" lon="8.611157553637993"><ele>14.0</ele><time>2026-04-27T08:00:13.997Z</time></trkpt><trkpt lat="39.90442363066967" lon="8.611325477111244"><ele>14.0</ele><time>2026-04-27T08:00:14.997Z</time></trkpt><trkpt lat="39.904440129886886" lon="8.611475371766163"><ele>14.0</ele><time>2026-04-27T08:00:15.997Z</time></trkpt><trkpt lat="39.9044554734146" lon="8.611608486552614"><ele>14.0</ele><time>2026-04-27T08:00:16.997Z</time></trkpt><trkpt lat="39.90446888887303" lon="8.611739586019398"><ele>14.0</ele><time>2026-04-27T08:00:17.997Z</time></trkpt><trkpt lat="39.90448335093077" lon="8.61185580575211"><ele>13.999999999999998</ele><time>2026-04-27T08:00:18.997Z</time></trkpt><trkpt lat="39.90450199628647" lon="8.611968590983768"><ele>13.999999999999998</ele><time>2026-04-27T08:00:19.997Z</time></trkpt><trkpt lat="39.904517867980076" lon="8.612095477989635"><ele>14.0</ele><time>2026-04-27T08:00:20.997Z</time></trkpt><trkpt lat="39.904533682704916" lon="8.612244015594634"><ele>14.0</ele><time>2026-04-27T08:00:21.997Z</time></trkpt><trkpt lat="39.90454995172697" lon="8.61237685772939"><ele>14.2</ele><time>2026-04-27T08:00:22.997Z</time></trkpt><trkpt lat="39.904569598746455" lon="8.612527032317784"><ele>14.399999999999999</ele><time>2026-04-27T08:00:23.997Z</time></trkpt><trkpt lat="39.90458443944325" lon="8.612668049036364"><ele>14.6</ele><time>2026-04-27T08:00:24.997Z</time></trkpt><trkpt lat="39.904603928547004" lon="8.612804335965068"><ele>14.8</ele><time>2026-04-27T08:00:25.997Z</time></trkpt><trkpt lat="39.904620694300185" lon="8.612930687001988"><ele>15.0</ele><time>2026-04-27T08:00:26.997Z</time></trkpt><trkpt lat="39.90463424820824" lon="8.61306013932597"><ele>15.25</ele><time>2026-04-27T08:00:27.997Z</time></trkpt><trkpt lat="39.90465422666528" lon="8.613200966329813"><ele>15.5</ele><time>2026-04-27T08:00:28.997Z</time></trkpt><trkpt lat="39.904668431522154" lon="8.613347679884322"><ele>15.75</ele><time>2026-04-27T08:00:29.997Z</time></trkpt><trkpt lat="39.90469506344359" lon="8.613513257788041"><ele>16.0</ele><time>2026-04-27T08:00:30.997Z</time></trkpt><trkpt lat="39.90471610475432" lon="8.613673308627195"><ele>16.0</ele><time>2026-04-27T08:00:31.997Z</time></trkpt><trkpt lat="39.90473256784168" lon="8.613836952541458"><ele>16.0</ele><time>2026-04-27T08:00:32.997Z</time></trkpt><trkpt lat="39.904754907523284" lon="8.61401091696394"><ele>16.0</ele><time>2026-04-27T08:00:33.997Z</time></trkpt><trkpt lat="39.9047796851076" lon="8.614191350055805"><ele>16.0</ele><time>2026-04-27T08:00:34.997Z</time></trkpt><trkpt lat="39.90480536486261" lon="8.614369083680758"><ele>16.0</ele><time>2026-04-27T08:00:35.997Z</time></trkpt><trkpt lat="39.904826664485114" lon="8.61454860347479"><ele>16.0</ele><time>2026-04-27T08:00:36.997Z</time></trkpt><trkpt lat="39.90485097099062" lon="8.614727394771105"><ele>16.0</ele><time>2026-04-27T08:00:37.997Z</time></trkpt><trkpt lat="39.904873846490496" lon="8.614914848635616"><ele>16.0</ele><time>2026-04-27T08:00:38.997Z</time></trkpt><trkpt lat="39.90489649388294" lon="8.615088337696763"><ele>16.0</ele><time>2026-04-27T08:00:39.997Z</time></trkpt><trkpt lat="39.90491138911054" lon="8.61526019009583"><ele>16.0</ele><time>2026-04-27T08:00:40.997Z</time></trkpt><trkpt lat="39.904926089323894" lon="8.615423101891004"><ele>16.0</ele><time>2026-04-27T08:00:41.997Z</time></trkpt><trkpt lat="39.904930643605276" lon="8.61556435833656"><ele>16.0</ele><time>2026-04-27T08:00:42.997Z</time></trkpt><trkpt lat="39.90493720740122" lon="8.615690178085755"><ele>16.0</ele><time>2026-04-27T08:00:43.997Z</time></trkpt><trkpt lat="39.90494146117362" lon="8.615809177308286"><ele>16.0</ele><time>2026-04-27T08:00:44.997Z</time></trkpt><trkpt lat="39.9049417466298" lon="8.615925435077035"><ele>16.0</ele><time>2026-04-27T08:00:45.997Z</time></trkpt><trkpt lat="39.904944887918234" lon="8.616057974553728"><ele>16.0</ele><time>2026-04-27T08:00:46.997Z</time></trkpt><trkpt lat="39.9049286627803" lon="8.616201172451694"><ele>16.0</ele><time>2026-04-27T08:00:47.997Z</time></trkpt><trkpt lat="39.904924543175454" lon="8.616341620400972"><ele>16.0</ele><time>2026-04-27T08:00:48.997Z</time></trkpt><trkpt lat="39.90491592328408" lon="8.616493456854233"><ele>16.0</ele><time>2026-04-27T08:00:49.997Z</time></trkpt><trkpt lat="39.904903183395845" lon="8.616645999989235"><ele>16.0</ele><time>2026-04-27T08:00:50.997Z</time></trkpt><trkpt lat="39.904888617862774" lon="8.616792526849572"><ele>16.0</ele><time>2026-04-27T08:00:51.997Z</time></trkpt><trkpt lat="39.90487111462752" lon="8.616937291729082"><ele>16.0</ele><time>2026-04-27T08:00:52.997Z</time></trkpt><trkpt lat="39.90485707615509" lon="8.617055461648404"><ele>16.0</ele><time>2026-04-27T08:00:53.997Z</time></trkpt><trkpt lat="39.90486114877683" lon="8.617143654125405"><ele>16.0</ele><time>2026-04-27T08:00:54.997Z</time></trkpt><trkpt lat="39.90483337796385" lon="8.617242480993703"><ele>16.0</ele><time>2026-04-27T08:00:56.997Z</time></trkpt><trkpt lat="39.90494910466415" lon="8.61728426882927"><ele>16.0</ele><time>2026-04-27T08:01:01.997Z</time></trkpt><trkpt lat="39.90504185596337" lon="8.61724138927856"><ele>15.4</ele><time>2026-04-27T08:01:03.997Z</time></trkpt><trkpt lat="39.90510999487278" lon="8.617190338445702"><ele>14.8</ele><time>2026-04-27T08:01:04.997Z</time></trkpt><trkpt lat="39.9051887046245" lon="8.617129833364515"><ele>14.200000000000001</ele><time>2026-04-27T08:01:05.997Z</time></trkpt><trkpt lat="39.905285661475226" lon="8.617097987711544"><ele>13.600000000000001</ele><time>2026-04-27T08:01:06.997Z</time></trkpt><trkpt lat="39.90538274716899" lon="8.617044292642325"><ele>13.0</ele><time>2026-04-27T08:01:07.997Z</time></trkpt><trkpt lat="39.90547937190643" lon="8.616989504902218"><ele>13.4</ele><time>2026-04-27T08:01:08.997Z</time></trkpt><trkpt lat="39.905576359789265" lon="8.61691226512262"><ele>13.8</ele><time>2026-04-27T08:01:09.997Z</time></trkpt><trkpt lat="39.9056749734513" lon="8.61685372476775"><ele>14.2</ele><time>2026-04-27T08:01:10.997Z</time></trkpt><trkpt lat="39.90577644799678" lon="8.616816724215798"><ele>14.6</ele><time>2026-04-27T08:01:11.997Z</time></trkpt><trkpt lat="39.905876050366864" lon="8.616757132181203"><ele>15.0</ele><time>2026-04-27T08:01:12.997Z</time></trkpt><trkpt lat="39.905976666767984" lon="8.616699624219804"><ele>15.0</ele><time>2026-04-27T08:01:13.997Z</time></trkpt><trkpt lat="39.906067100225464" lon="8.616650769297424"><ele>15.0</ele><time>2026-04-27T08:01:14.997Z</time></trkpt><trkpt lat="39.90615802991592" lon="8.616583826985767"><ele>15.0</ele><time>2026-04-27T08:01:15.997Z</time></trkpt><trkpt lat="39.906270211418956" lon="8.616547082263956"><ele>15.0</ele><time>2026-04-27T08:01:16.997Z</time></trkpt><trkpt lat="39.90637971904858" lon="8.616496313584872"><ele>15.0</ele><time>2026-04-27T08:01:17.997Z</time></trkpt><trkpt lat="39.90649932628471" lon="8.616452934603126"><ele>15.0</ele><time>2026-04-27T08:01:18.997Z</time></trkpt><trkpt lat="39.90662201627398" lon="8.616417109353582"><ele>15.0</ele><time>2026-04-27T08:01:19.997Z</time></trkpt><trkpt lat="39.9067505154296" lon="8.616425836696472"><ele>15.0</ele><time>2026-04-27T08:01:20.997Z</time></trkpt><trkpt lat="39.906880264120105" lon="8.61642202350266"><ele>15.0</ele><time>2026-04-27T08:01:21.997Z</time></trkpt><trkpt lat="39.907017446273315" lon="8.616418540303268"><ele>14.75</ele><time>2026-04-27T08:01:22.997Z</time></trkpt><trkpt lat="39.907162895393526" lon="8.616420830670535"><ele>14.5</ele><time>2026-04-27T08:01:23.997Z</time></trkpt><trkpt lat="39.907315611660486" lon="8.616419985055987"><ele>14.25</ele><time>2026-04-27T08:01:24.997Z</time></trkpt><trkpt lat="39.907464884808945" lon="8.61642393877096"><ele>14.0</ele><time>2026-04-27T08:01:25.997Z</time></trkpt><trkpt lat="39.907623868659925" lon="8.616431060725876"><ele>13.666666666666668</ele><time>2026-04-27T08:01:26.997Z</time></trkpt><trkpt lat="39.90778138891931" lon="8.616434837654754"><ele>13.333333333333332</ele><time>2026-04-27T08:01:27.997Z</time></trkpt><trkpt lat="39.907939808497225" lon="8.616437389760446"><ele>13.0</ele><time>2026-04-27T08:01:28.997Z</time></trkpt><trkpt lat="39.90809361841662" lon="8.616439765530284"><ele>13.0</ele><time>2026-04-27T08:01:29.997Z</time></trkpt><trkpt lat="39.90822808709268" lon="8.61643852706397"><ele>13.0</ele><time>2026-04-27T08:01:30.997Z</time></trkpt><trkpt lat="39.90838125103711" lon="8.61645692263607"><ele>13.0</ele><time>2026-04-27T08:01:31.997Z</time></trkpt><trkpt lat="39.908525561040186" lon="8.616459246690543"><ele>13.0</ele><time>2026-04-27T08:01:32.997Z</time></trkpt><trkpt lat="39.90865653449013" lon="8.61646291400291"><ele>13.2</ele><time>2026-04-27T08:01:33.997Z</time></trkpt><trkpt lat="39.908777916451726" lon="8.616464533724724"><ele>13.4</ele><time>2026-04-27T08:01:34.997Z</time></trkpt><trkpt lat="39.90889085170348" lon="8.616466688717292"><ele>13.599999999999998</ele><time>2026-04-27T08:01:35.997Z</time></trkpt><trkpt lat="39.90899119370951" lon="8.616465017456752"><ele>13.799999999999999</ele><time>2026-04-27T08:01:36.997Z</time></trkpt><trkpt lat="39.90906802087549" lon="8.616453406411999"><ele>14.0</ele><time>2026-04-27T08:01:37.996Z</time></trkpt><trkpt lat="39.909142910659426" lon="8.616426721561483"><ele>14.000000000000002</ele><time>2026-04-27T08:01:38.995Z</time></trkpt><trkpt lat="39.909204780361314" lon="8.61638484437028"><ele>14.0</ele><time>2026-04-27T08:01:39.995Z</time></trkpt><trkpt lat="39.909256322867144" lon="8.616320498278471"><ele>14.0</ele><time>2026-04-27T08:01:40.995Z</time></trkpt><trkpt lat="39.90930556606451" lon="8.616237217428134"><ele>14.0</ele><time>2026-04-27T08:01:41.996Z</time></trkpt><trkpt lat="39.90935268286343" lon="8.616136774667082"><ele>14.000000000000002</ele><time>2026-04-27T08:01:42.996Z</time></trkpt><trkpt lat="39.90939881630274" lon="8.616015360583676"><ele>14.0</ele><time>2026-04-27T08:01:43.996Z</time></trkpt><trkpt lat="39.90944499241235" lon="8.615877718157925"><ele>14.0</ele><time>2026-04-27T08:01:44.995Z</time></trkpt><trkpt lat="39.90949640592477" lon="8.615728730455894"><ele>14.0</ele><time>2026-04-27T08:01:45.996Z</time></trkpt><trkpt lat="39.90955197571426" lon="8.615581547749782"><ele>14.0</ele><time>2026-04-27T08:01:46.996Z</time></trkpt><trkpt lat="39.909610860749034" lon="8.61543055483402"><ele>14.0</ele><time>2026-04-27T08:01:47.995Z</time></trkpt><trkpt lat="39.909669261448016" lon="8.615276665292528"><ele>14.0</ele><time>2026-04-27T08:01:48.995Z</time></trkpt><trkpt lat="39.90972781036606" lon="8.615125744120217"><ele>13.999999999999998</ele><time>2026-04-27T08:01:49.995Z</time></trkpt><trkpt lat="39.90977933028956" lon="8.614991948938277"><ele>13.999999999999998</ele><time>2026-04-27T08:01:50.995Z</time></trkpt><trkpt lat="39.90982863883694" lon="8.614864887021696"><ele>14.0</ele><time>2026-04-27T08:01:51.995Z</time></trkpt><trkpt lat="39.90986789904792" lon="8.61476627136796"><ele>14.0</ele><time>2026-04-27T08:01:52.995Z</time></trkpt><trkpt lat="39.90998735615188" lon="8.614869651889117"><ele>14.000000000000002</ele><time>2026-04-27T08:01:58.995Z</time></trkpt><trkpt lat="39.91002594182182" lon="8.614951340573644"><ele>14.0</ele><time>2026-04-27T08:01:59.995Z</time></trkpt><trkpt lat="39.9100712991252" lon="8.615039772821063"><ele>14.0</ele><time>2026-04-27T08:02:00.995Z</time></trkpt><trkpt lat="39.91012967935503" lon="8.61512178025235"><ele>14.0</ele><time>2026-04-27T08:02:01.995Z</time></trkpt><trkpt lat="39.91018874341294" lon="8.615206479440483"><ele>14.000000000000002</ele><time>2026-04-27T08:02:02.995Z</time></trkpt><trkpt lat="39.91023613958657" lon="8.615301233487697"><ele>14.0</ele><time>2026-04-27T08:02:03.995Z</time></trkpt><trkpt lat="39.91028669734364" lon="8.615372272526118"><ele>13.799999999999999</ele><time>2026-04-27T08:02:04.995Z</time></trkpt><trkpt lat="39.910341894315486" lon="8.615449847339352"><ele>13.599999999999998</ele><time>2026-04-27T08:02:05.995Z</time></trkpt><trkpt lat="39.91040493963797" lon="8.615538444090362"><ele>13.4</ele><time>2026-04-27T08:02:06.995Z</time></trkpt><trkpt lat="39.91047226686902" lon="8.615633058213616"><ele>13.2</ele><time>2026-04-27T08:02:07.995Z</time></trkpt><trkpt lat="39.91052730041745" lon="8.615732024622538"><ele>13.0</ele><time>2026-04-27T08:02:08.995Z</time></trkpt><trkpt lat="39.91057715697844" lon="8.615820436456636"><ele>13.0</ele><time>2026-04-27T08:02:09.996Z</time></trkpt><trkpt lat="39.91063169251373" lon="8.615908237667393"><ele>13.0</ele><time>2026-04-27T08:02:10.996Z</time></trkpt><trkpt lat="39.91069750797413" lon="8.615992034597571"><ele>13.0</ele><time>2026-04-27T08:02:11.996Z</time></trkpt><trkpt lat="39.91076167544831" lon="8.61609436368066"><ele>13.0</ele><time>2026-04-27T08:02:12.996Z</time></trkpt><trkpt lat="39.910813564016024" lon="8.616188917644422"><ele>13.0</ele><time>2026-04-27T08:02:13.996Z</time></trkpt><trkpt lat="39.91087194332351" lon="8.616291191694735"><ele>13.166666666666666</ele><time>2026-04-27T08:02:14.996Z</time></trkpt><trkpt lat="39.910922747770655" lon="8.616380967104496"><ele>13.333333333333332</ele><time>2026-04-27T08:02:15.996Z</time></trkpt><trkpt lat="39.91097506781146" lon="8.616470460685937"><ele>13.5</ele><time>2026-04-27T08:02:16.996Z</time></trkpt><trkpt lat="39.91102381690144" lon="8.616552429746942"><ele>13.666666666666668</ele><time>2026-04-27T08:02:17.996Z</time></trkpt><trkpt lat="39.91107324291435" lon="8.616635575938517"><ele>13.833333333333334</ele><time>2026-04-27T08:02:18.996Z</time></trkpt><trkpt lat="39.91112038712392" lon="8.61672253799621"><ele>14.0</ele><time>2026-04-27T08:02:19.996Z</time></trkpt><trkpt lat="39.91117691788819" lon="8.616817898361367"><ele>14.0</ele><time>2026-04-27T08:02:20.996Z</time></trkpt><trkpt lat="39.91123045289836" lon="8.616909148596593"><ele>13.999999999999998</ele><time>2026-04-27T08:02:21.996Z</time></trkpt><trkpt lat="39.91127559224573" lon="8.616991897186784"><ele>13.999999999999998</ele><time>2026-04-27T08:02:22.996Z</time></trkpt><trkpt lat="39.91135108602345" lon="8.61715385089189"><ele>14.0</ele><time>2026-04-27T08:02:24.996Z</time></trkpt><trkpt lat="39.911391414808946" lon="8.617244885387679"><ele>14.0</ele><time>2026-04-27T08:02:25.996Z</time></trkpt><trkpt lat="39.91143508483292" lon="8.617338585358917"><ele>14.0</ele><time>2026-04-27T08:02:26.996Z</time></trkpt><trkpt lat="39.91147518919586" lon="8.617433634672684"><ele>13.999999999999998</ele><time>2026-04-27T08:02:27.996Z</time></trkpt><trkpt lat="39.911510101785645" lon="8.617530042376467"><ele>13.999999999999998</ele><time>2026-04-27T08:02:28.996Z</time></trkpt><trkpt lat="39.911546653313636" lon="8.61764729532179"><ele>14.0</ele><time>2026-04-27T08:02:29.996Z</time></trkpt><trkpt lat="39.9115745601123" lon="8.617765821481186"><ele>14.0</ele><time>2026-04-27T08:02:30.996Z</time></trkpt><trkpt lat="39.91160422515431" lon="8.61788232213096"><ele>13.833333333333334</ele><time>2026-04-27T08:02:31.996Z</time></trkpt><trkpt lat="39.9116315374035" lon="8.618001172171558"><ele>13.666666666666668</ele><time>2026-04-27T08:02:32.996Z</time></trkpt><trkpt lat="39.91166536967502" lon="8.61812595262579"><ele>13.5</ele><time>2026-04-27T08:02:33.996Z</time></trkpt><trkpt lat="39.91169047012768" lon="8.618234579375883"><ele>13.333333333333332</ele><time>2026-04-27T08:02:34.996Z</time></trkpt><trkpt lat="39.911720085903305" lon="8.618340475512024"><ele>13.166666666666666</ele><time>2026-04-27T08:02:35.996Z</time></trkpt><trkpt lat="39.91172740807194" lon="8.618439039703848"><ele>13.0</ele><time>2026-04-27T08:02:36.996Z</time></trkpt><trkpt lat="39.91175855864183" lon="8.618540025501513"><ele>13.0</ele><time>2026-04-27T08:02:37.996Z</time></trkpt><trkpt lat="39.91177909245906" lon="8.618639337067384"><ele>13.0</ele><time>2026-04-27T08:02:38.996Z</time></trkpt><trkpt lat="39.911797717568106" lon="8.618746292267844"><ele>13.0</ele><time>2026-04-27T08:02:39.996Z</time></trkpt><trkpt lat="39.91182298784425" lon="8.618866307096253"><ele>13.0</ele><time>2026-04-27T08:02:40.996Z</time></trkpt><trkpt lat="39.911849247002145" lon="8.618988522227067"><ele>13.0</ele><time>2026-04-27T08:02:41.996Z</time></trkpt><trkpt lat="39.91187596900207" lon="8.619109920586206"><ele>13.0</ele><time>2026-04-27T08:02:42.996Z</time></trkpt><trkpt lat="39.91190789535983" lon="8.619234554799709"><ele>13.0</ele><time>2026-04-27T08:02:43.996Z</time></trkpt><trkpt lat="39.91192586955005" lon="8.619346566378002"><ele>13.0</ele><time>2026-04-27T08:02:44.996Z</time></trkpt><trkpt lat="39.911949342360394" lon="8.61947711753491"><ele>13.0</ele><time>2026-04-27T08:02:45.996Z</time></trkpt><trkpt lat="39.91197242406252" lon="8.619603658213848"><ele>13.0</ele><time>2026-04-27T08:02:46.996Z</time></trkpt><trkpt lat="39.91198635316864" lon="8.619712365008116"><ele>12.833333333333332</ele><time>2026-04-27T08:02:47.996Z</time></trkpt><trkpt lat="39.91199526251994" lon="8.619797938307398"><ele>12.666666666666666</ele><time>2026-04-27T08:02:48.996Z</time></trkpt><trkpt lat="39.912000103281" lon="8.619886115450166"><ele>12.5</ele><time>2026-04-27T08:02:50.996Z</time></trkpt><trkpt lat="39.912012757457646" lon="8.61997604272265"><ele>12.333333333333332</ele><time>2026-04-27T08:02:52.996Z</time></trkpt><trkpt lat="39.91208177781966" lon="8.620130879209958"><ele>12.166666666666666</ele><time>2026-04-27T08:02:54.996Z</time></trkpt><trkpt lat="39.91211913978319" lon="8.620223295693267"><ele>12.0</ele><time>2026-04-27T08:02:55.996Z</time></trkpt><trkpt lat="39.91215890009197" lon="8.62032947573301"><ele>12.0</ele><time>2026-04-27T08:02:56.996Z</time></trkpt><trkpt lat="39.91219853826975" lon="8.620438083493221"><ele>12.0</ele><time>2026-04-27T08:02:57.996Z</time></trkpt><trkpt lat="39.91225043161131" lon="8.620562616190231"><ele>12.0</ele><time>2026-04-27T08:02:58.996Z</time></trkpt><trkpt lat="39.91230643272822" lon="8.620694452774666"><ele>12.0</ele><time>2026-04-27T08:02:59.996Z</time></trkpt><trkpt lat="39.91236458291356" lon="8.620828179215511"><ele>12.0</ele><time>2026-04-27T08:03:00.996Z</time></trkpt><trkpt lat="39.91242496298928" lon="8.620950268451494"><ele>12.0</ele><time>2026-04-27T08:03:01.996Z</time></trkpt><trkpt lat="39.91249499494871" lon="8.62108051323458"><ele>12.0</ele><time>2026-04-27T08:03:02.996Z</time></trkpt><trkpt lat="39.91256455505793" lon="8.62119179803473"><ele>12.0</ele><time>2026-04-27T08:03:03.996Z</time></trkpt><trkpt lat="39.91262753200284" lon="8.621291938381495"><ele>12.0</ele><time>2026-04-27T08:03:04.996Z</time></trkpt><trkpt lat="39.91268238546799" lon="8.621401501352052"><ele>12.0</ele><time>2026-04-27T08:03:05.996Z</time></trkpt><trkpt lat="39.912728067675445" lon="8.621514714850193"><ele>11.8</ele><time>2026-04-27T08:03:06.996Z</time></trkpt><trkpt lat="39.91276101278131" lon="8.621629255262897"><ele>11.6</ele><time>2026-04-27T08:03:07.996Z</time></trkpt><trkpt lat="39.91278674836297" lon="8.621753425622465"><ele>11.4</ele><time>2026-04-27T08:03:08.996Z</time></trkpt><trkpt lat="39.9127847338594" lon="8.621891314894093"><ele>11.200000000000001</ele><time>2026-04-27T08:03:09.996Z</time></trkpt><trkpt lat="39.91278979384075" lon="8.622033833617893"><ele>11.0</ele><time>2026-04-27T08:03:10.996Z</time></trkpt><trkpt lat="39.91279166497091" lon="8.622177244281517"><ele>11.5</ele><time>2026-04-27T08:03:11.996Z</time></trkpt><trkpt lat="39.91279312370536" lon="8.622308463880398"><ele>12.0</ele><time>2026-04-27T08:03:12.996Z</time></trkpt><trkpt lat="39.912808919676976" lon="8.622449620115681"><ele>12.5</ele><time>2026-04-27T08:03:13.996Z</time></trkpt><trkpt lat="39.9128101857698" lon="8.622603072023479"><ele>13.0</ele><time>2026-04-27T08:03:14.996Z</time></trkpt><trkpt lat="39.91282249956965" lon="8.622761017122187"><ele>13.0</ele><time>2026-04-27T08:03:15.996Z</time></trkpt><trkpt lat="39.912836122823" lon="8.622926027265764"><ele>13.0</ele><time>2026-04-27T08:03:16.996Z</time></trkpt><trkpt lat="39.912856378169266" lon="8.623093256852272"><ele>13.0</ele><time>2026-04-27T08:03:17.996Z</time></trkpt><trkpt lat="39.912874463680296" lon="8.623256811401783"><ele>13.0</ele><time>2026-04-27T08:03:18.996Z</time></trkpt><trkpt lat="39.912891511413825" lon="8.623432100653039"><ele>13.0</ele><time>2026-04-27T08:03:19.996Z</time></trkpt><trkpt lat="39.912910901985995" lon="8.623586392838115"><ele>13.0</ele><time>2026-04-27T08:03:20.996Z</time></trkpt><trkpt lat="39.912921488641224" lon="8.623739833850081"><ele>13.0</ele><time>2026-04-27T08:03:21.996Z</time></trkpt><trkpt lat="39.912940273007386" lon="8.623891752747651"><ele>13.0</ele><time>2026-04-27T08:03:22.996Z</time></trkpt><trkpt lat="39.91293964160804" lon="8.624054999609516"><ele>12.5</ele><time>2026-04-27T08:03:23.996Z</time></trkpt><trkpt lat="39.91294442094494" lon="8.624211963747278"><ele>12.0</ele><time>2026-04-27T08:03:24.996Z</time></trkpt><trkpt lat="39.912950102890235" lon="8.624379029647896"><ele>11.5</ele><time>2026-04-27T08:03:25.996Z</time></trkpt><trkpt lat="39.91297603761094" lon="8.624544701510269"><ele>11.0</ele><time>2026-04-27T08:03:26.996Z</time></trkpt><trkpt lat="39.912983556739526" lon="8.624719676478225"><ele>11.0</ele><time>2026-04-27T08:03:27.996Z</time></trkpt><trkpt lat="39.91299440942974" lon="8.62487266528812"><ele>11.0</ele><time>2026-04-27T08:03:28.996Z</time></trkpt><trkpt lat="39.91302301675357" lon="8.625036582374314"><ele>11.0</ele><time>2026-04-27T08:03:29.996Z</time></trkpt><trkpt lat="39.91304162851674" lon="8.625177833542569"><ele>11.0</ele><time>2026-04-27T08:03:30.996Z</time></trkpt><trkpt lat="39.91306777882475" lon="8.625313069808815"><ele>11.0</ele><time>2026-04-27T08:03:31.996Z</time></trkpt><trkpt lat="39.913095456854016" lon="8.625454880032702"><ele>11.0</ele><time>2026-04-27T08:03:32.996Z</time></trkpt><trkpt lat="39.9131226821106" lon="8.62558464768046"><ele>11.0</ele><time>2026-04-27T08:03:33.996Z</time></trkpt><trkpt lat="39.91315611617541" lon="8.625685870270893"><ele>11.0</ele><time>2026-04-27T08:03:34.996Z</time></trkpt><trkpt lat="39.91319864181943" lon="8.625763615192069"><ele>11.0</ele><time>2026-04-27T08:03:35.996Z</time></trkpt><trkpt lat="39.913258881525195" lon="8.625850440902116"><ele>11.0</ele><time>2026-04-27T08:03:36.996Z</time></trkpt><trkpt lat="39.91333207703141" lon="8.625955206598992"><ele>11.0</ele><time>2026-04-27T08:03:37.996Z</time></trkpt><trkpt lat="39.913400735588404" lon="8.626061018361677"><ele>11.0</ele><time>2026-04-27T08:03:38.996Z</time></trkpt><trkpt lat="39.91346178531531" lon="8.626178754932424"><ele>11.0</ele><time>2026-04-27T08:03:39.996Z</time></trkpt><trkpt lat="39.913536639850996" lon="8.626309258726614"><ele>11.0</ele><time>2026-04-27T08:03:40.996Z</time></trkpt><trkpt lat="39.913607515091655" lon="8.626430713468304"><ele>11.600000000000001</ele><time>2026-04-27T08:03:41.996Z</time></trkpt><trkpt lat="39.913672393712666" lon="8.626554242306524"><ele>12.2</ele><time>2026-04-27T08:03:42.996Z</time></trkpt><trkpt lat="39.913727050773424" lon="8.62666779102108"><ele>12.799999999999999</ele><time>2026-04-27T08:03:43.995Z</time></trkpt><trkpt lat="39.91377698175563" lon="8.62677175093306"><ele>13.399999999999999</ele><time>2026-04-27T08:03:44.995Z</time></trkpt><trkpt lat="39.913823803293845" lon="8.626857947306092"><ele>14.0</ele><time>2026-04-27T08:03:45.995Z</time></trkpt><trkpt lat="39.91386687541812" lon="8.626923746067506"><ele>14.000000000000002</ele><time>2026-04-27T08:03:46.995Z</time></trkpt><trkpt lat="39.91390293648707" lon="8.627017180625959"><ele>14.0</ele><time>2026-04-27T08:03:49.995Z</time></trkpt><trkpt lat="39.91401162909819" lon="8.626966278357767"><ele>14.0</ele><time>2026-04-27T08:03:50.995Z</time></trkpt><trkpt lat="39.91405325397824" lon="8.62706666036197"><ele>14.0</ele><time>2026-04-27T08:03:52.995Z</time></trkpt><trkpt lat="39.91408895959202" lon="8.627149419892204"><ele>14.000000000000002</ele><time>2026-04-27T08:03:53.995Z</time></trkpt><trkpt lat="39.9141233485595" lon="8.627225946490857"><ele>14.0</ele><time>2026-04-27T08:03:54.995Z</time></trkpt><trkpt lat="39.9141689237418" lon="8.62732497822257"><ele>13.799999999999999</ele><time>2026-04-27T08:03:55.994Z</time></trkpt><trkpt lat="39.9142211370781" lon="8.627435254519746"><ele>13.599999999999998</ele><time>2026-04-27T08:03:56.995Z</time></trkpt><trkpt lat="39.91429264373037" lon="8.627542420878962"><ele>13.4</ele><time>2026-04-27T08:03:57.995Z</time></trkpt><trkpt lat="39.914343098494186" lon="8.627658140727558"><ele>13.2</ele><time>2026-04-27T08:03:58.995Z</time></trkpt><trkpt lat="39.91440265686524" lon="8.627776280969774"><ele>13.0</ele><time>2026-04-27T08:03:59.995Z</time></trkpt><trkpt lat="39.914459638866695" lon="8.627901759442452"><ele>12.75</ele><time>2026-04-27T08:04:00.995Z</time></trkpt><trkpt lat="39.91451720524573" lon="8.62803498659687"><ele>12.5</ele><time>2026-04-27T08:04:01.995Z</time></trkpt><trkpt lat="39.91457597931248" lon="8.628167774393892"><ele>12.25</ele><time>2026-04-27T08:04:02.995Z</time></trkpt><trkpt lat="39.914628385104436" lon="8.628308210081332"><ele>12.0</ele><time>2026-04-27T08:04:03.995Z</time></trkpt><trkpt lat="39.9146848663106" lon="8.62842509198373"><ele>12.0</ele><time>2026-04-27T08:04:04.995Z</time></trkpt><trkpt lat="39.91471883363094" lon="8.628518118309222"><ele>12.0</ele><time>2026-04-27T08:04:05.995Z</time></trkpt><trkpt lat="39.914770705801665" lon="8.628613414501443"><ele>12.0</ele><time>2026-04-27T08:04:06.995Z</time></trkpt><trkpt lat="39.914837924012524" lon="8.62870159316876"><ele>12.0</ele><time>2026-04-27T08:04:07.995Z</time></trkpt><trkpt lat="39.91492368283096" lon="8.628791180881903"><ele>12.0</ele><time>2026-04-27T08:04:08.995Z</time></trkpt><trkpt lat="39.91502308997183" lon="8.628883973445236"><ele>12.2</ele><time>2026-04-27T08:04:09.995Z</time></trkpt><trkpt lat="39.91510467153327" lon="8.628961969765632"><ele>12.399999999999999</ele><time>2026-04-27T08:04:10.995Z</time></trkpt><trkpt lat="39.91517758943189" lon="8.629038989877412"><ele>12.600000000000001</ele><time>2026-04-27T08:04:11.995Z</time></trkpt><trkpt lat="39.9152561280794" lon="8.629139813843778"><ele>12.8</ele><time>2026-04-27T08:04:12.995Z</time></trkpt><trkpt lat="39.915342003991235" lon="8.629267310692445"><ele>13.0</ele><time>2026-04-27T08:04:13.995Z</time></trkpt><trkpt lat="39.915428191654954" lon="8.62939525184869"><ele>13.25</ele><time>2026-04-27T08:04:14.995Z</time></trkpt><trkpt lat="39.915511439177706" lon="8.629513348811148"><ele>13.5</ele><time>2026-04-27T08:04:15.995Z</time></trkpt><trkpt lat="39.9155790252848" lon="8.629626380162355"><ele>13.75</ele><time>2026-04-27T08:04:16.995Z</time></trkpt><trkpt lat="39.915661534189695" lon="8.629743519952637"><ele>14.0</ele><time>2026-04-27T08:04:17.995Z</time></trkpt><trkpt lat="39.91574452953792" lon="8.629865823111055"><ele>14.0</ele><time>2026-04-27T08:04:18.995Z</time></trkpt><trkpt lat="39.91582661172197" lon="8.629990147243417"><ele>14.0</ele><time>2026-04-27T08:04:19.995Z</time></trkpt><trkpt lat="39.91590897787262" lon="8.630116655942151"><ele>14.0</ele><time>2026-04-27T08:04:20.995Z</time></trkpt><trkpt lat="39.91598946762494" lon="8.630251631696295"><ele>14.0</ele><time>2026-04-27T08:04:21.995Z</time></trkpt><trkpt lat="39.91606799187809" lon="8.630393721960315"><ele>13.5</ele><time>2026-04-27T08:04:22.995Z</time></trkpt><trkpt lat="39.91614148672023" lon="8.630536602533715"><ele>13.0</ele><time>2026-04-27T08:04:23.995Z</time></trkpt><trkpt lat="39.91620407112428" lon="8.630664531171647"><ele>12.5</ele><time>2026-04-27T08:04:24.995Z</time></trkpt><trkpt lat="39.91626345238597" lon="8.630778207435956"><ele>12.0</ele><time>2026-04-27T08:04:25.995Z</time></trkpt><trkpt lat="39.91632104200256" lon="8.63088695497574"><ele>12.0</ele><time>2026-04-27T08:04:26.995Z</time></trkpt><trkpt lat="39.91638269609712" lon="8.631003658259944"><ele>12.0</ele><time>2026-04-27T08:04:27.995Z</time></trkpt><trkpt lat="39.91641758347859" lon="8.631112445060097"><ele>12.0</ele><time>2026-04-27T08:04:28.995Z</time></trkpt><trkpt lat="39.91644023809856" lon="8.631218100354344"><ele>12.0</ele><time>2026-04-27T08:04:29.995Z</time></trkpt><trkpt lat="39.916416870718685" lon="8.631331719479652"><ele>12.0</ele><time>2026-04-27T08:04:31.995Z</time></trkpt><trkpt lat="39.91636882363369" lon="8.63139825901179"><ele>12.0</ele><time>2026-04-27T08:04:32.995Z</time></trkpt><trkpt lat="39.91634612512464" lon="8.631480079585199"><ele>12.0</ele><time>2026-04-27T08:04:33.995Z</time></trkpt><trkpt lat="39.91632540206283" lon="8.631622834426258"><ele>12.0</ele><time>2026-04-27T08:04:35.995Z</time></trkpt><trkpt lat="39.916371821815034" lon="8.63172212195083"><ele>12.0</ele><time>2026-04-27T08:04:36.995Z</time></trkpt><trkpt lat="39.9164769804674" lon="8.631764763399975"><ele>12.0</ele><time>2026-04-27T08:04:37.995Z</time></trkpt><trkpt lat="39.91654976550344" lon="8.631837101193968"><ele>12.0</ele><time>2026-04-27T08:04:38.995Z</time></trkpt><trkpt lat="39.916651936156995" lon="8.631923022096206"><ele>11.5</ele><time>2026-04-27T08:04:39.995Z</time></trkpt><trkpt lat="39.91674675458178" lon="8.632020721908003"><ele>11.0</ele><time>2026-04-27T08:04:40.995Z</time></trkpt><trkpt lat="39.91683785434793" lon="8.632142670093222"><ele>10.5</ele><time>2026-04-27T08:04:41.995Z</time></trkpt><trkpt lat="39.916944130061076" lon="8.632256684191212"><ele>10.0</ele><time>2026-04-27T08:04:42.995Z</time></trkpt><trkpt lat="39.91704940786532" lon="8.632374186100522"><ele>10.0</ele><time>2026-04-27T08:04:43.995Z</time></trkpt><trkpt lat="39.917149811933115" lon="8.632486248441523"><ele>10.0</ele><time>2026-04-27T08:04:44.995Z</time></trkpt><trkpt lat="39.917238573591035" lon="8.632587351783709"><ele>10.0</ele><time>2026-04-27T08:04:45.995Z</time></trkpt><trkpt lat="39.91732898486771" lon="8.632675644949012"><ele>10.0</ele><time>2026-04-27T08:04:46.995Z</time></trkpt><trkpt lat="39.917394457467594" lon="8.632800906099297"><ele>10.0</ele><time>2026-04-27T08:04:47.995Z</time></trkpt><trkpt lat="39.917451518690434" lon="8.632948032462988"><ele>10.0</ele><time>2026-04-27T08:04:48.995Z</time></trkpt><trkpt lat="39.91750729566221" lon="8.63311645888102"><ele>10.0</ele><time>2026-04-27T08:04:49.995Z</time></trkpt><trkpt lat="39.91755409547182" lon="8.633290601154105"><ele>10.0</ele><time>2026-04-27T08:04:50.995Z</time></trkpt><trkpt lat="39.91759886258653" lon="8.63346595765859"><ele>10.5</ele><time>2026-04-27T08:04:51.995Z</time></trkpt><trkpt lat="39.9176497140727" lon="8.633638859736408"><ele>11.0</ele><time>2026-04-27T08:04:52.996Z</time></trkpt><trkpt lat="39.91771041657622" lon="8.633800728636086"><ele>11.5</ele><time>2026-04-27T08:04:53.996Z</time></trkpt><trkpt lat="39.91774381198066" lon="8.633945544834488"><ele>12.0</ele><time>2026-04-27T08:04:54.996Z</time></trkpt><trkpt lat="39.917798049443505" lon="8.634071776586518"><ele>12.0</ele><time>2026-04-27T08:04:55.996Z</time></trkpt><trkpt lat="39.917849809808054" lon="8.634190525622357"><ele>12.0</ele><time>2026-04-27T08:04:56.996Z</time></trkpt><trkpt lat="39.91789919225449" lon="8.634287939540197"><ele>12.0</ele><time>2026-04-27T08:04:57.996Z</time></trkpt><trkpt lat="39.91794359026909" lon="8.634367141883143"><ele>12.0</ele><time>2026-04-27T08:04:58.996Z</time></trkpt><trkpt lat="39.917926928552895" lon="8.634502844123192"><ele>12.0</ele><time>2026-04-27T08:05:01.996Z</time></trkpt><trkpt lat="39.91788092255108" lon="8.634610769531957"><ele>12.2</ele><time>2026-04-27T08:05:03.996Z</time></trkpt><trkpt lat="39.91783800624647" lon="8.634691306505035"><ele>12.399999999999999</ele><time>2026-04-27T08:05:04.996Z</time></trkpt><trkpt lat="39.91779382103851" lon="8.634771793460738"><ele>12.600000000000001</ele><time>2026-04-27T08:05:05.996Z</time></trkpt><trkpt lat="39.917747091646824" lon="8.634877250154158"><ele>12.8</ele><time>2026-04-27T08:05:06.996Z</time></trkpt><trkpt lat="39.91768769004642" lon="8.634992973033974"><ele>13.0</ele><time>2026-04-27T08:05:07.996Z</time></trkpt><trkpt lat="39.917632950968894" lon="8.635123678650828"><ele>13.0</ele><time>2026-04-27T08:05:08.996Z</time></trkpt><trkpt lat="39.9175635637807" lon="8.635260851932042"><ele>13.0</ele><time>2026-04-27T08:05:09.996Z</time></trkpt><trkpt lat="39.91749347439129" lon="8.63540032692215"><ele>13.0</ele><time>2026-04-27T08:05:10.996Z</time></trkpt><trkpt lat="39.917426229681894" lon="8.635526737954228"><ele>13.0</ele><time>2026-04-27T08:05:11.996Z</time></trkpt><trkpt lat="39.91736881534091" lon="8.635651552145685"><ele>12.833333333333332</ele><time>2026-04-27T08:05:12.996Z</time></trkpt><trkpt lat="39.91731936703769" lon="8.635759705854086"><ele>12.666666666666666</ele><time>2026-04-27T08:05:13.996Z</time></trkpt><trkpt lat="39.91726695011307" lon="8.63586740624681"><ele>12.5</ele><time>2026-04-27T08:05:14.996Z</time></trkpt><trkpt lat="39.91721939105718" lon="8.635973076051307"><ele>12.333333333333332</ele><time>2026-04-27T08:05:15.996Z</time></trkpt><trkpt lat="39.91717731670877" lon="8.636063459934475"><ele>12.166666666666666</ele><time>2026-04-27T08:05:16.996Z</time></trkpt><trkpt lat="39.91713935991454" lon="8.636146844750568"><ele>12.0</ele><time>2026-04-27T08:05:17.996Z</time></trkpt><trkpt lat="39.917077104105395" lon="8.636278748483807"><ele>11.8</ele><time>2026-04-27T08:05:19.996Z</time></trkpt><trkpt lat="39.91701671674395" lon="8.636389173341803"><ele>11.6</ele><time>2026-04-27T08:05:21.996Z</time></trkpt><trkpt lat="39.91697462957784" lon="8.63648067737768"><ele>11.4</ele><time>2026-04-27T08:05:23.996Z</time></trkpt><trkpt lat="39.91690730769994" lon="8.636626960053391"><ele>11.200000000000001</ele><time>2026-04-27T08:05:25.996Z</time></trkpt><trkpt lat="39.91686351256624" lon="8.636718639374104"><ele>11.0</ele><time>2026-04-27T08:05:26.996Z</time></trkpt><trkpt lat="39.91681832998449" lon="8.636814183923192"><ele>11.0</ele><time>2026-04-27T08:05:27.996Z</time></trkpt><trkpt lat="39.91676605688348" lon="8.636917169775868"><ele>11.0</ele><time>2026-04-27T08:05:28.996Z</time></trkpt><trkpt lat="39.916709837306364" lon="8.637029706981606"><ele>11.0</ele><time>2026-04-27T08:05:29.996Z</time></trkpt><trkpt lat="39.91664895221698" lon="8.637142865553487"><ele>11.0</ele><time>2026-04-27T08:05:30.996Z</time></trkpt><trkpt lat="39.91656508244039" lon="8.637259241176965"><ele>11.0</ele><time>2026-04-27T08:05:31.996Z</time></trkpt><trkpt lat="39.91648891406633" lon="8.63739191988234"><ele>11.25</ele><time>2026-04-27T08:05:32.996Z</time></trkpt><trkpt lat="39.91641036567861" lon="8.637523420635766"><ele>11.5</ele><time>2026-04-27T08:05:33.996Z</time></trkpt><trkpt lat="39.916328236997536" lon="8.63765804082152"><ele>11.75</ele><time>2026-04-27T08:05:34.996Z</time></trkpt><trkpt lat="39.91624231266305" lon="8.637795086258615"><ele>12.0</ele><time>2026-04-27T08:05:35.996Z</time></trkpt><trkpt lat="39.91615160879065" lon="8.637932688967965"><ele>12.0</ele><time>2026-04-27T08:05:36.996Z</time></trkpt><trkpt lat="39.91605895509356" lon="8.638071735016647"><ele>12.0</ele><time>2026-04-27T08:05:37.996Z</time></trkpt><trkpt lat="39.915967795269125" lon="8.638218266718496"><ele>12.0</ele><time>2026-04-27T08:05:38.996Z</time></trkpt><trkpt lat="39.91588480869631" lon="8.638359633867775"><ele>12.0</ele><time>2026-04-27T08:05:39.996Z</time></trkpt><trkpt lat="39.91580695527113" lon="8.63851226870417"><ele>13.0</ele><time>2026-04-27T08:05:40.996Z</time></trkpt><trkpt lat="39.9157235919918" lon="8.638670337336622"><ele>14.0</ele><time>2026-04-27T08:05:41.996Z</time></trkpt><trkpt lat="39.915654179982624" lon="8.638829160055858"><ele>15.0</ele><time>2026-04-27T08:05:42.996Z</time></trkpt><trkpt lat="39.91559833190806" lon="8.638996143383945"><ele>16.0</ele><time>2026-04-27T08:05:43.996Z</time></trkpt><trkpt lat="39.91554773998053" lon="8.639175295127174"><ele>16.0</ele><time>2026-04-27T08:05:44.996Z</time></trkpt><trkpt lat="39.91550282562263" lon="8.639358570013089"><ele>16.0</ele><time>2026-04-27T08:05:45.996Z</time></trkpt><trkpt lat="39.91546698536876" lon="8.639541974189411"><ele>16.0</ele><time>2026-04-27T08:05:46.996Z</time></trkpt><trkpt lat="39.915431436912414" lon="8.639733719626845"><ele>16.0</ele><time>2026-04-27T08:05:47.996Z</time></trkpt><trkpt lat="39.91539513538849" lon="8.639907564313827"><ele>16.0</ele><time>2026-04-27T08:05:48.994Z</time></trkpt><trkpt lat="39.915357391364" lon="8.640101183670325"><ele>16.0</ele><time>2026-04-27T08:05:49.994Z</time></trkpt><trkpt lat="39.91533470085174" lon="8.640294072304597"><ele>16.0</ele><time>2026-04-27T08:05:50.994Z</time></trkpt><trkpt lat="39.9153018972904" lon="8.640489564741591"><ele>16.0</ele><time>2026-04-27T08:05:51.994Z</time></trkpt><trkpt lat="39.91526692505881" lon="8.640689102205886"><ele>16.0</ele><time>2026-04-27T08:05:52.995Z</time></trkpt><trkpt lat="39.91523515242658" lon="8.640889171281497"><ele>16.0</ele><time>2026-04-27T08:05:53.995Z</time></trkpt><trkpt lat="39.915198165176285" lon="8.641086462442976"><ele>16.0</ele><time>2026-04-27T08:05:54.994Z</time></trkpt><trkpt lat="39.91515272104159" lon="8.641281710302671"><ele>16.0</ele><time>2026-04-27T08:05:55.995Z</time></trkpt><trkpt lat="39.915107239285575" lon="8.64148025195699"><ele>16.0</ele><time>2026-04-27T08:05:56.995Z</time></trkpt><trkpt lat="39.915057855471154" lon="8.641670544841048"><ele>16.0</ele><time>2026-04-27T08:05:57.994Z</time></trkpt><trkpt lat="39.914989575904656" lon="8.641849701976124"><ele>16.0</ele><time>2026-04-27T08:05:58.995Z</time></trkpt><trkpt lat="39.91493134478188" lon="8.642035173351791"><ele>16.0</ele><time>2026-04-27T08:05:59.995Z</time></trkpt><trkpt lat="39.914872683908115" lon="8.642220518719535"><ele>16.0</ele><time>2026-04-27T08:06:00.994Z</time></trkpt><trkpt lat="39.91480984958225" lon="8.642404631474296"><ele>16.0</ele><time>2026-04-27T08:06:01.995Z</time></trkpt><trkpt lat="39.914755937936356" lon="8.642599885666282"><ele>16.0</ele><time>2026-04-27T08:06:02.995Z</time></trkpt><trkpt lat="39.91468870431114" lon="8.642777833964656"><ele>15.333333333333332</ele><time>2026-04-27T08:06:03.995Z</time></trkpt><trkpt lat="39.91460969492373" lon="8.642941204581408"><ele>14.666666666666668</ele><time>2026-04-27T08:06:04.995Z</time></trkpt><trkpt lat="39.914543382797085" lon="8.6431166817732"><ele>14.0</ele><time>2026-04-27T08:06:05.995Z</time></trkpt><trkpt lat="39.91447289299987" lon="8.643298687169972"><ele>14.0</ele><time>2026-04-27T08:06:06.995Z</time></trkpt><trkpt lat="39.91439577862435" lon="8.643485760228636"><ele>14.0</ele><time>2026-04-27T08:06:07.995Z</time></trkpt><trkpt lat="39.91431302292057" lon="8.643666763228172"><ele>14.0</ele><time>2026-04-27T08:06:08.995Z</time></trkpt><trkpt lat="39.91422760961073" lon="8.643842403115723"><ele>14.0</ele><time>2026-04-27T08:06:09.995Z</time></trkpt><trkpt lat="39.914134308947375" lon="8.644025199861694"><ele>14.0</ele><time>2026-04-27T08:06:10.995Z</time></trkpt><trkpt lat="39.91403749590303" lon="8.644210424993469"><ele>14.0</ele><time>2026-04-27T08:06:11.995Z</time></trkpt><trkpt lat="39.91394583476105" lon="8.64438436175362"><ele>14.0</ele><time>2026-04-27T08:06:12.995Z</time></trkpt><trkpt lat="39.91385088307568" lon="8.644561744067552"><ele>14.0</ele><time>2026-04-27T08:06:13.995Z</time></trkpt><trkpt lat="39.91375662086696" lon="8.644731704830576"><ele>14.0</ele><time>2026-04-27T08:06:14.995Z</time></trkpt><trkpt lat="39.91365947091308" lon="8.64490002784267"><ele>14.0</ele><time>2026-04-27T08:06:15.995Z</time></trkpt><trkpt lat="39.913559861953246" lon="8.645061832391372"><ele>14.0</ele><time>2026-04-27T08:06:16.995Z</time></trkpt><trkpt lat="39.913457972749605" lon="8.645223001329855"><ele>14.0</ele><time>2026-04-27T08:06:17.995Z</time></trkpt><trkpt lat="39.91337084606125" lon="8.645396750746706"><ele>13.333333333333334</ele><time>2026-04-27T08:06:18.995Z</time></trkpt><trkpt lat="39.91327397816846" lon="8.645560600758271"><ele>12.666666666666668</ele><time>2026-04-27T08:06:19.995Z</time></trkpt><trkpt lat="39.913175759912825" lon="8.645727395079112"><ele>12.0</ele><time>2026-04-27T08:06:20.995Z</time></trkpt><trkpt lat="39.91308437217122" lon="8.645863087240178"><ele>12.0</ele><time>2026-04-27T08:06:21.995Z</time></trkpt><trkpt lat="39.9130139162589" lon="8.645996654670586"><ele>12.0</ele><time>2026-04-27T08:06:22.995Z</time></trkpt><trkpt lat="39.912957082267056" lon="8.646157995055269"><ele>12.0</ele><time>2026-04-27T08:06:23.995Z</time></trkpt><trkpt lat="39.9129285171798" lon="8.646344224416822"><ele>12.0</ele><time>2026-04-27T08:06:24.995Z</time></trkpt><trkpt lat="39.91288371353256" lon="8.646522418724889"><ele>12.25</ele><time>2026-04-27T08:06:25.995Z</time></trkpt><trkpt lat="39.912845831905976" lon="8.64670597888019"><ele>12.5</ele><time>2026-04-27T08:06:26.995Z</time></trkpt><trkpt lat="39.91281971355634" lon="8.646893101187295"><ele>12.75</ele><time>2026-04-27T08:06:27.995Z</time></trkpt><trkpt lat="39.91277374062706" lon="8.647077629347526"><ele>13.0</ele><time>2026-04-27T08:06:28.995Z</time></trkpt><trkpt lat="39.91274121107765" lon="8.647268365552872"><ele>13.0</ele><time>2026-04-27T08:06:29.995Z</time></trkpt><trkpt lat="39.91270818657222" lon="8.647476880309693"><ele>13.0</ele><time>2026-04-27T08:06:30.995Z</time></trkpt><trkpt lat="39.9126743357568" lon="8.647679573506737"><ele>13.0</ele><time>2026-04-27T08:06:31.995Z</time></trkpt><trkpt lat="39.91263727124245" lon="8.64788823977609"><ele>13.0</ele><time>2026-04-27T08:06:32.995Z</time></trkpt><trkpt lat="39.9126024958291" lon="8.648092730570795"><ele>13.0</ele><time>2026-04-27T08:06:33.995Z</time></trkpt><trkpt lat="39.9125671684197" lon="8.648306437320269"><ele>13.0</ele><time>2026-04-27T08:06:34.995Z</time></trkpt><trkpt lat="39.91253269641622" lon="8.648514969780345"><ele>13.0</ele><time>2026-04-27T08:06:35.995Z</time></trkpt><trkpt lat="39.91249638129912" lon="8.648726398113647"><ele>13.0</ele><time>2026-04-27T08:06:36.995Z</time></trkpt><trkpt lat="39.91246119400608" lon="8.648927155001827"><ele>13.0</ele><time>2026-04-27T08:06:37.995Z</time></trkpt><trkpt lat="39.91242645311091" lon="8.649125364964501"><ele>13.0</ele><time>2026-04-27T08:06:38.995Z</time></trkpt><trkpt lat="39.91239162800989" lon="8.649331373818884"><ele>13.0</ele><time>2026-04-27T08:06:39.995Z</time></trkpt><trkpt lat="39.91235989327961" lon="8.649534608446517"><ele>13.0</ele><time>2026-04-27T08:06:40.995Z</time></trkpt><trkpt lat="39.91232865099125" lon="8.6497397576282"><ele>13.0</ele><time>2026-04-27T08:06:41.995Z</time></trkpt><trkpt lat="39.91229648295593" lon="8.649951487971844"><ele>13.0</ele><time>2026-04-27T08:06:42.995Z</time></trkpt><trkpt lat="39.91226203724679" lon="8.650165233552546"><ele>13.0</ele><time>2026-04-27T08:06:43.995Z</time></trkpt><trkpt lat="39.91222367469333" lon="8.650375099826586"><ele>14.0</ele><time>2026-04-27T08:06:44.995Z</time></trkpt><trkpt lat="39.91218258624984" lon="8.650589624288942"><ele>15.0</ele><time>2026-04-27T08:06:45.995Z</time></trkpt><trkpt lat="39.91214324645713" lon="8.6508032097184"><ele>16.0</ele><time>2026-04-27T08:06:46.995Z</time></trkpt><trkpt lat="39.91210407777361" lon="8.651012658828368"><ele>16.0</ele><time>2026-04-27T08:06:47.995Z</time></trkpt><trkpt lat="39.91206381002132" lon="8.651216924466244"><ele>16.0</ele><time>2026-04-27T08:06:48.995Z</time></trkpt><trkpt lat="39.91202290279035" lon="8.651424433789082"><ele>16.0</ele><time>2026-04-27T08:06:49.995Z</time></trkpt><trkpt lat="39.91198327616726" lon="8.65162755062447"><ele>16.0</ele><time>2026-04-27T08:06:50.995Z</time></trkpt><trkpt lat="39.91194381475485" lon="8.651832710995917"><ele>16.0</ele><time>2026-04-27T08:06:51.995Z</time></trkpt><trkpt lat="39.911910523137266" lon="8.652005794501578"><ele>16.0</ele><time>2026-04-27T08:06:52.995Z</time></trkpt><trkpt lat="39.91187848000707" lon="8.652172387113081"><ele>16.0</ele><time>2026-04-27T08:06:53.995Z</time></trkpt><trkpt lat="39.91184754634132" lon="8.652333211590314"><ele>16.0</ele><time>2026-04-27T08:06:54.995Z</time></trkpt><trkpt lat="39.91181865601167" lon="8.65249630943467"><ele>16.0</ele><time>2026-04-27T08:06:55.995Z</time></trkpt><trkpt lat="39.911803194757546" lon="8.65262601493543"><ele>16.0</ele><time>2026-04-27T08:06:56.995Z</time></trkpt><trkpt lat="39.911768850380724" lon="8.652768274767707"><ele>16.0</ele><time>2026-04-27T08:06:57.995Z</time></trkpt><trkpt lat="39.911740926213305" lon="8.652896429854854"><ele>16.0</ele><time>2026-04-27T08:06:58.995Z</time></trkpt><trkpt lat="39.91171180788446" lon="8.653003487082557"><ele>15.600000000000001</ele><time>2026-04-27T08:06:59.995Z</time></trkpt><trkpt lat="39.911686110402464" lon="8.653103157939164"><ele>15.200000000000001</ele><time>2026-04-27T08:07:00.995Z</time></trkpt><trkpt lat="39.91165011444165" lon="8.653221497335352"><ele>14.799999999999999</ele><time>2026-04-27T08:07:01.995Z</time></trkpt><trkpt lat="39.911622634908795" lon="8.65340568411998"><ele>14.399999999999999</ele><time>2026-04-27T08:07:02.995Z</time></trkpt><trkpt lat="39.91158971936751" lon="8.653547218373873"><ele>14.0</ele><time>2026-04-27T08:07:03.995Z</time></trkpt><trkpt lat="39.911550972321336" lon="8.653732837942377"><ele>14.0</ele><time>2026-04-27T08:07:05.995Z</time></trkpt><trkpt lat="39.91146187510102" lon="8.653815492757806"><ele>14.0</ele><time>2026-04-27T08:07:06.995Z</time></trkpt><trkpt lat="39.911361947455894" lon="8.653900657164417"><ele>14.0</ele><time>2026-04-27T08:07:07.995Z</time></trkpt><trkpt lat="39.911291760446964" lon="8.654011020870396"><ele>14.0</ele><time>2026-04-27T08:07:08.995Z</time></trkpt><trkpt lat="39.91122875519155" lon="8.654138476633566"><ele>14.0</ele><time>2026-04-27T08:07:09.995Z</time></trkpt><trkpt lat="39.91116099337489" lon="8.65427299728232"><ele>14.0</ele><time>2026-04-27T08:07:10.995Z</time></trkpt><trkpt lat="39.91109268178413" lon="8.654413925413204"><ele>14.0</ele><time>2026-04-27T08:07:11.995Z</time></trkpt><trkpt lat="39.911018147709456" lon="8.654567690567895"><ele>14.0</ele><time>2026-04-27T08:07:12.995Z</time></trkpt><trkpt lat="39.91094381447476" lon="8.654720458084638"><ele>14.0</ele><time>2026-04-27T08:07:13.995Z</time></trkpt><trkpt lat="39.91086864459707" lon="8.65487445743594"><ele>14.0</ele><time>2026-04-27T08:07:14.995Z</time></trkpt><trkpt lat="39.91080174637972" lon="8.655040531038303"><ele>14.0</ele><time>2026-04-27T08:07:15.995Z</time></trkpt><trkpt lat="39.91072309809048" lon="8.655191480828186"><ele>14.0</ele><time>2026-04-27T08:07:16.995Z</time></trkpt><trkpt lat="39.91065197503776" lon="8.65534297826786"><ele>14.0</ele><time>2026-04-27T08:07:17.995Z</time></trkpt><trkpt lat="39.9105614881809" lon="8.65547604863877"><ele>14.0</ele><time>2026-04-27T08:07:18.995Z</time></trkpt><trkpt lat="39.91048282698113" lon="8.655624361378436"><ele>14.0</ele><time>2026-04-27T08:07:19.995Z</time></trkpt><trkpt lat="39.910405851745296" lon="8.655774951641723"><ele>14.0</ele><time>2026-04-27T08:07:20.995Z</time></trkpt><trkpt lat="39.91033728024443" lon="8.655928016692902"><ele>14.0</ele><time>2026-04-27T08:07:21.995Z</time></trkpt><trkpt lat="39.910279124207094" lon="8.656074079205212"><ele>14.0</ele><time>2026-04-27T08:07:22.995Z</time></trkpt><trkpt lat="39.91022792427087" lon="8.656216699740114"><ele>14.0</ele><time>2026-04-27T08:07:23.995Z</time></trkpt><trkpt lat="39.910205174785645" lon="8.656349078376877"><ele>14.0</ele><time>2026-04-27T08:07:24.995Z</time></trkpt><trkpt lat="39.91015837904304" lon="8.656475558994945"><ele>14.0</ele><time>2026-04-27T08:07:25.995Z</time></trkpt><trkpt lat="39.91010501757142" lon="8.656575934729512"><ele>14.0</ele><time>2026-04-27T08:07:26.995Z</time></trkpt><trkpt lat="39.910018898075094" lon="8.656632915695385"><ele>14.0</ele><time>2026-04-27T08:07:27.995Z</time></trkpt><trkpt lat="39.91003756868356" lon="8.656820917047105"><ele>14.0</ele><time>2026-04-27T08:07:28.995Z</time></trkpt><trkpt lat="39.9100168604625" lon="8.656967589846511"><ele>14.0</ele><time>2026-04-27T08:07:29.995Z</time></trkpt><trkpt lat="39.909995697235004" lon="8.657104960906922"><ele>14.0</ele><time>2026-04-27T08:07:30.995Z</time></trkpt><trkpt lat="39.90995661905869" lon="8.657262676841999"><ele>14.0</ele><time>2026-04-27T08:07:31.995Z</time></trkpt><trkpt lat="39.90991682826254" lon="8.657418181821733"><ele>14.0</ele><time>2026-04-27T08:07:32.995Z</time></trkpt><trkpt lat="39.90982799722593" lon="8.657552288312777"><ele>14.0</ele><time>2026-04-27T08:07:33.995Z</time></trkpt><trkpt lat="39.90974823902166" lon="8.6576863781996"><ele>14.0</ele><time>2026-04-27T08:07:34.995Z</time></trkpt><trkpt lat="39.90967803883893" lon="8.657838980663186"><ele>14.0</ele><time>2026-04-27T08:07:35.995Z</time></trkpt><trkpt lat="39.909580898204815" lon="8.657971913712602"><ele>14.0</ele><time>2026-04-27T08:07:36.995Z</time></trkpt><trkpt lat="39.90950230778481" lon="8.658130692423512"><ele>14.0</ele><time>2026-04-27T08:07:37.995Z</time></trkpt><trkpt lat="39.90941557967698" lon="8.65829898468224"><ele>14.0</ele><time>2026-04-27T08:07:38.995Z</time></trkpt><trkpt lat="39.90932123921349" lon="8.658471159274097"><ele>14.0</ele><time>2026-04-27T08:07:39.995Z</time></trkpt><trkpt lat="39.90922193230282" lon="8.658643305528221"><ele>14.333333333333334</ele><time>2026-04-27T08:07:40.995Z</time></trkpt><trkpt lat="39.90912103039918" lon="8.658835137311641"><ele>14.666666666666668</ele><time>2026-04-27T08:07:41.995Z</time></trkpt><trkpt lat="39.90903192102384" lon="8.659014642295588"><ele>15.0</ele><time>2026-04-27T08:07:42.995Z</time></trkpt><trkpt lat="39.908931800766084" lon="8.659193475849325"><ele>15.0</ele><time>2026-04-27T08:07:43.995Z</time></trkpt><trkpt lat="39.90884222067957" lon="8.65937879570114"><ele>15.0</ele><time>2026-04-27T08:07:44.995Z</time></trkpt><trkpt lat="39.90874542370665" lon="8.659550286331582"><ele>15.0</ele><time>2026-04-27T08:07:45.995Z</time></trkpt><trkpt lat="39.908645936051805" lon="8.659728441149635"><ele>15.0</ele><time>2026-04-27T08:07:46.995Z</time></trkpt><trkpt lat="39.90854612481056" lon="8.659922823065605"><ele>15.0</ele><time>2026-04-27T08:07:47.995Z</time></trkpt><trkpt lat="39.908450724654266" lon="8.660096004854811"><ele>15.0</ele><time>2026-04-27T08:07:48.995Z</time></trkpt><trkpt lat="39.908354582847196" lon="8.660276159016972"><ele>14.333333333333332</ele><time>2026-04-27T08:07:49.995Z</time></trkpt><trkpt lat="39.90826459501831" lon="8.660462943212803"><ele>13.666666666666666</ele><time>2026-04-27T08:07:50.995Z</time></trkpt><trkpt lat="39.9081678925305" lon="8.660646309562816"><ele>13.0</ele><time>2026-04-27T08:07:51.995Z</time></trkpt><trkpt lat="39.9080625899342" lon="8.660824210927283"><ele>13.0</ele><time>2026-04-27T08:07:52.995Z</time></trkpt><trkpt lat="39.90796874728701" lon="8.661005308623302"><ele>13.0</ele><time>2026-04-27T08:07:53.995Z</time></trkpt><trkpt lat="39.90786969702291" lon="8.661189509031951"><ele>13.0</ele><time>2026-04-27T08:07:54.993Z</time></trkpt><trkpt lat="39.90778782589266" lon="8.66135403603545"><ele>13.0</ele><time>2026-04-27T08:07:55.994Z</time></trkpt><trkpt lat="39.907707047129506" lon="8.661492921606516"><ele>13.0</ele><time>2026-04-27T08:07:56.994Z</time></trkpt><trkpt lat="39.90762758898994" lon="8.661642746025226"><ele>13.0</ele><time>2026-04-27T08:07:57.994Z</time></trkpt><trkpt lat="39.90754577496282" lon="8.661795484741011"><ele>13.0</ele><time>2026-04-27T08:07:58.994Z</time></trkpt><trkpt lat="39.907467153768145" lon="8.66194476403447"><ele>12.8</ele><time>2026-04-27T08:07:59.994Z</time></trkpt><trkpt lat="39.907404436286015" lon="8.662076594320057"><ele>12.600000000000001</ele><time>2026-04-27T08:08:00.994Z</time></trkpt><trkpt lat="39.907342843891264" lon="8.662191045653826"><ele>12.399999999999999</ele><time>2026-04-27T08:08:01.994Z</time></trkpt><trkpt lat="39.90728857145556" lon="8.662278675779296"><ele>12.2</ele><time>2026-04-27T08:08:02.994Z</time></trkpt><trkpt lat="39.907245797081224" lon="8.662341125913871"><ele>12.0</ele><time>2026-04-27T08:08:03.994Z</time></trkpt><trkpt lat="39.90721420195438" lon="8.662434790894226"><ele>12.0</ele><time>2026-04-27T08:08:05.994Z</time></trkpt><trkpt lat="39.90732005355395" lon="8.66259268193058"><ele>12.0</ele><time>2026-04-27T08:08:11.994Z</time></trkpt><trkpt lat="39.907387039596344" lon="8.662685521764645"><ele>12.0</ele><time>2026-04-27T08:08:12.994Z</time></trkpt><trkpt lat="39.90746308785616" lon="8.66278102903453"><ele>12.0</ele><time>2026-04-27T08:08:13.994Z</time></trkpt><trkpt lat="39.907521588331285" lon="8.662867948314577"><ele>12.0</ele><time>2026-04-27T08:08:14.994Z</time></trkpt><trkpt lat="39.90759265306948" lon="8.662960429248168"><ele>12.0</ele><time>2026-04-27T08:08:15.994Z</time></trkpt><trkpt lat="39.907748490736495" lon="8.662980885407343"><ele>12.0</ele><time>2026-04-27T08:08:16.994Z</time></trkpt><trkpt lat="39.907826441536216" lon="8.663098156729188"><ele>12.0</ele><time>2026-04-27T08:08:17.994Z</time></trkpt><trkpt lat="39.90791556109731" lon="8.663224542733419"><ele>12.0</ele><time>2026-04-27T08:08:18.994Z</time></trkpt><trkpt lat="39.90800053755425" lon="8.663345053067683"><ele>12.0</ele><time>2026-04-27T08:08:19.994Z</time></trkpt><trkpt lat="39.90808745591266" lon="8.66346831724338"><ele>12.0</ele><time>2026-04-27T08:08:20.994Z</time></trkpt><trkpt lat="39.90817345414788" lon="8.663592014831005"><ele>12.0</ele><time>2026-04-27T08:08:21.994Z</time></trkpt><trkpt lat="39.908256959952496" lon="8.663719384364875"><ele>12.0</ele><time>2026-04-27T08:08:22.994Z</time></trkpt><trkpt lat="39.90833775032691" lon="8.663851721570623"><ele>12.0</ele><time>2026-04-27T08:08:23.994Z</time></trkpt><trkpt lat="39.90842268334028" lon="8.66398503162723"><ele>12.0</ele><time>2026-04-27T08:08:24.994Z</time></trkpt><trkpt lat="39.90850495194579" lon="8.664105421489875"><ele>12.0</ele><time>2026-04-27T08:08:25.994Z</time></trkpt><trkpt lat="39.908596242476364" lon="8.66422640018226"><ele>12.0</ele><time>2026-04-27T08:08:26.994Z</time></trkpt><trkpt lat="39.908686386501586" lon="8.664293456855184"><ele>12.0</ele><time>2026-04-27T08:08:27.994Z</time></trkpt><trkpt lat="39.90881557746603" lon="8.664411344871684"><ele>12.0</ele><time>2026-04-27T08:08:28.994Z</time></trkpt><trkpt lat="39.90884557312427" lon="8.664633736916866"><ele>12.0</ele><time>2026-04-27T08:08:29.994Z</time></trkpt><trkpt lat="39.90893174794373" lon="8.664760778250283"><ele>12.0</ele><time>2026-04-27T08:08:30.994Z</time></trkpt><trkpt lat="39.90901832710258" lon="8.664886756684488"><ele>12.0</ele><time>2026-04-27T08:08:31.994Z</time></trkpt><trkpt lat="39.90910350468686" lon="8.665017937414675"><ele>12.0</ele><time>2026-04-27T08:08:32.994Z</time></trkpt><trkpt lat="39.90919166249685" lon="8.665153411808074"><ele>12.0</ele><time>2026-04-27T08:08:33.994Z</time></trkpt><trkpt lat="39.90928083643629" lon="8.665288898480116"><ele>12.5</ele><time>2026-04-27T08:08:34.994Z</time></trkpt><trkpt lat="39.9093653794571" lon="8.665427572997972"><ele>13.0</ele><time>2026-04-27T08:08:35.994Z</time></trkpt><trkpt lat="39.90945281632012" lon="8.665566487589594"><ele>13.5</ele><time>2026-04-27T08:08:36.994Z</time></trkpt><trkpt lat="39.909540687313374" lon="8.665702817914424"><ele>14.0</ele><time>2026-04-27T08:08:37.994Z</time></trkpt><trkpt lat="39.90962701755513" lon="8.665841870006053"><ele>14.0</ele><time>2026-04-27T08:08:38.994Z</time></trkpt><trkpt lat="39.90971393823387" lon="8.665979269413873"><ele>14.0</ele><time>2026-04-27T08:08:39.994Z</time></trkpt><trkpt lat="39.90979941623369" lon="8.66611377889551"><ele>14.0</ele><time>2026-04-27T08:08:40.994Z</time></trkpt><trkpt lat="39.909887219317014" lon="8.666254844305886"><ele>14.0</ele><time>2026-04-27T08:08:41.994Z</time></trkpt><trkpt lat="39.909975163600244" lon="8.666389402836224"><ele>13.75</ele><time>2026-04-27T08:08:42.994Z</time></trkpt><trkpt lat="39.91006287929038" lon="8.666522542658255"><ele>13.5</ele><time>2026-04-27T08:08:43.994Z</time></trkpt><trkpt lat="39.9101481512178" lon="8.666647773625366"><ele>13.25</ele><time>2026-04-27T08:08:44.994Z</time></trkpt><trkpt lat="39.91023686396657" lon="8.66677435597659"><ele>13.0</ele><time>2026-04-27T08:08:45.994Z</time></trkpt><trkpt lat="39.91031957923218" lon="8.666909189179334"><ele>13.4</ele><time>2026-04-27T08:08:46.994Z</time></trkpt><trkpt lat="39.91039593861671" lon="8.667042159637045"><ele>13.8</ele><time>2026-04-27T08:08:47.994Z</time></trkpt><trkpt lat="39.91046619341224" lon="8.667161521752917"><ele>14.2</ele><time>2026-04-27T08:08:48.994Z</time></trkpt><trkpt lat="39.91052684710018" lon="8.667265570120191"><ele>14.6</ele><time>2026-04-27T08:08:49.994Z</time></trkpt><trkpt lat="39.91057487680241" lon="8.667323464256725"><ele>15.0</ele><time>2026-04-27T08:08:50.994Z</time></trkpt><trkpt lat="39.91061977439708" lon="8.667408117423939"><ele>15.0</ele><time>2026-04-27T08:08:52.994Z</time></trkpt><trkpt lat="39.910664667271504" lon="8.667539812182754"><ele>15.0</ele><time>2026-04-27T08:08:55.994Z</time></trkpt><trkpt lat="39.91070243775895" lon="8.66761633040632"><ele>15.0</ele><time>2026-04-27T08:08:56.994Z</time></trkpt><trkpt lat="39.910754532605445" lon="8.66768386136036"><ele>15.0</ele><time>2026-04-27T08:08:57.994Z</time></trkpt><trkpt lat="39.91082006086324" lon="8.667778154578874"><ele>15.0</ele><time>2026-04-27T08:08:58.994Z</time></trkpt><trkpt lat="39.91086782864953" lon="8.667868690832384"><ele>15.0</ele><time>2026-04-27T08:08:59.994Z</time></trkpt><trkpt lat="39.91091370769542" lon="8.66797778799232"><ele>15.0</ele><time>2026-04-27T08:09:00.994Z</time></trkpt><trkpt lat="39.91095592208316" lon="8.668082334719303"><ele>15.0</ele><time>2026-04-27T08:09:01.994Z</time></trkpt><trkpt lat="39.911001785004146" lon="8.668158562978219"><ele>15.0</ele><time>2026-04-27T08:09:02.994Z</time></trkpt><trkpt lat="39.91105182482775" lon="8.668256187849321"><ele>15.0</ele><time>2026-04-27T08:09:03.994Z</time></trkpt><trkpt lat="39.911091413136624" lon="8.6683762458666"><ele>15.0</ele><time>2026-04-27T08:09:04.994Z</time></trkpt><trkpt lat="39.911135189638195" lon="8.668498602495596"><ele>15.0</ele><time>2026-04-27T08:09:05.994Z</time></trkpt><trkpt lat="39.91118336387627" lon="8.668612911047012"><ele>15.0</ele><time>2026-04-27T08:09:06.994Z</time></trkpt><trkpt lat="39.91123752519635" lon="8.66874834609756"><ele>15.0</ele><time>2026-04-27T08:09:07.994Z</time></trkpt><trkpt lat="39.911294526852245" lon="8.668889853363252"><ele>15.0</ele><time>2026-04-27T08:09:08.994Z</time></trkpt><trkpt lat="39.9113471598795" lon="8.669012701628493"><ele>15.0</ele><time>2026-04-27T08:09:09.994Z</time></trkpt><trkpt lat="39.911396615704135" lon="8.669132291084749"><ele>15.0</ele><time>2026-04-27T08:09:10.994Z</time></trkpt><trkpt lat="39.91144732586301" lon="8.66926242373718"><ele>15.0</ele><time>2026-04-27T08:09:11.994Z</time></trkpt><trkpt lat="39.91150144995783" lon="8.66938067604806"><ele>15.0</ele><time>2026-04-27T08:09:12.994Z</time></trkpt><trkpt lat="39.911552237148804" lon="8.669502179137133"><ele>15.0</ele><time>2026-04-27T08:09:13.994Z</time></trkpt><trkpt lat="39.91160253224297" lon="8.669625750480476"><ele>15.0</ele><time>2026-04-27T08:09:14.994Z</time></trkpt><trkpt lat="39.91165883381266" lon="8.669742589725189"><ele>14.75</ele><time>2026-04-27T08:09:15.994Z</time></trkpt><trkpt lat="39.9117100032184" lon="8.669862668804688"><ele>14.5</ele><time>2026-04-27T08:09:16.994Z</time></trkpt><trkpt lat="39.91176245641016" lon="8.669993205332075"><ele>14.25</ele><time>2026-04-27T08:09:17.994Z</time></trkpt><trkpt lat="39.911817587203764" lon="8.670129859708453"><ele>14.0</ele><time>2026-04-27T08:09:18.994Z</time></trkpt><trkpt lat="39.91187465046106" lon="8.670268287839395"><ele>14.0</ele><time>2026-04-27T08:09:19.994Z</time></trkpt><trkpt lat="39.91193342385074" lon="8.670409966780458"><ele>14.0</ele><time>2026-04-27T08:09:20.994Z</time></trkpt><trkpt lat="39.911993971259385" lon="8.670555013648528"><ele>14.0</ele><time>2026-04-27T08:09:21.994Z</time></trkpt><trkpt lat="39.91205376150313" lon="8.670700582216881"><ele>14.0</ele><time>2026-04-27T08:09:22.994Z</time></trkpt><trkpt lat="39.91211421617285" lon="8.670844550221377"><ele>14.0</ele><time>2026-04-27T08:09:23.994Z</time></trkpt><trkpt lat="39.91217329148759" lon="8.670989865922197"><ele>14.0</ele><time>2026-04-27T08:09:24.994Z</time></trkpt><trkpt lat="39.912235262853095" lon="8.671140084224563"><ele>14.0</ele><time>2026-04-27T08:09:25.994Z</time></trkpt><trkpt lat="39.912298469963204" lon="8.671286926750827"><ele>14.0</ele><time>2026-04-27T08:09:26.994Z</time></trkpt><trkpt lat="39.91236071949395" lon="8.671435952345725"><ele>14.0</ele><time>2026-04-27T08:09:27.994Z</time></trkpt><trkpt lat="39.9124240948292" lon="8.671582410912995"><ele>14.0</ele><time>2026-04-27T08:09:28.994Z</time></trkpt><trkpt lat="39.91248755983715" lon="8.671727956184998"><ele>14.0</ele><time>2026-04-27T08:09:29.994Z</time></trkpt><trkpt lat="39.91255044957205" lon="8.671879942969774"><ele>14.0</ele><time>2026-04-27T08:09:30.994Z</time></trkpt><trkpt lat="39.91261471226775" lon="8.672029036547434"><ele>14.0</ele><time>2026-04-27T08:09:31.994Z</time></trkpt><trkpt lat="39.91268060273308" lon="8.672180101775833"><ele>14.0</ele><time>2026-04-27T08:09:32.994Z</time></trkpt><trkpt lat="39.912744953932595" lon="8.67233339647836"><ele>14.0</ele><time>2026-04-27T08:09:33.994Z</time></trkpt><trkpt lat="39.9128124898658" lon="8.672480167940146"><ele>14.0</ele><time>2026-04-27T08:09:34.994Z</time></trkpt><trkpt lat="39.91288999688385" lon="8.672621425765719"><ele>14.0</ele><time>2026-04-27T08:09:35.994Z</time></trkpt><trkpt lat="39.9129710159723" lon="8.672755148400627"><ele>14.0</ele><time>2026-04-27T08:09:36.994Z</time></trkpt><trkpt lat="39.91306660027417" lon="8.672895481359037"><ele>14.0</ele><time>2026-04-27T08:09:37.994Z</time></trkpt><trkpt lat="39.913155060327796" lon="8.673031120714246"><ele>14.0</ele><time>2026-04-27T08:09:38.994Z</time></trkpt><trkpt lat="39.91323378043151" lon="8.67317187952496"><ele>14.0</ele><time>2026-04-27T08:09:39.994Z</time></trkpt><trkpt lat="39.91330940126912" lon="8.673313852457612"><ele>14.0</ele><time>2026-04-27T08:09:40.994Z</time></trkpt><trkpt lat="39.91339256490625" lon="8.673458886637222"><ele>14.0</ele><time>2026-04-27T08:09:41.994Z</time></trkpt><trkpt lat="39.91347696234598" lon="8.673606649673967"><ele>14.0</ele><time>2026-04-27T08:09:42.994Z</time></trkpt><trkpt lat="39.91356362550793" lon="8.673741579777925"><ele>14.0</ele><time>2026-04-27T08:09:43.994Z</time></trkpt><trkpt lat="39.913638696158394" lon="8.673866274369802"><ele>14.0</ele><time>2026-04-27T08:09:44.994Z</time></trkpt><trkpt lat="39.91371340969873" lon="8.674000430995642"><ele>14.0</ele><time>2026-04-27T08:09:45.994Z</time></trkpt><trkpt lat="39.91379641996591" lon="8.674144605561015"><ele>14.0</ele><time>2026-04-27T08:09:46.994Z</time></trkpt><trkpt lat="39.91387836573422" lon="8.674292687678603"><ele>14.0</ele><time>2026-04-27T08:09:47.994Z</time></trkpt><trkpt lat="39.91396765790844" lon="8.674431038287032"><ele>14.0</ele><time>2026-04-27T08:09:48.994Z</time></trkpt><trkpt lat="39.91405360172008" lon="8.674579014959301"><ele>14.0</ele><time>2026-04-27T08:09:49.994Z</time></trkpt><trkpt lat="39.91413414695248" lon="8.674728051532206"><ele>14.0</ele><time>2026-04-27T08:09:50.994Z</time></trkpt><trkpt lat="39.91421834604699" lon="8.674870786059854"><ele>14.0</ele><time>2026-04-27T08:09:51.994Z</time></trkpt><trkpt lat="39.91430411408814" lon="8.675011179547912"><ele>14.0</ele><time>2026-04-27T08:09:52.994Z</time></trkpt><trkpt lat="39.91437823191816" lon="8.675155853389608"><ele>14.0</ele><time>2026-04-27T08:09:53.994Z</time></trkpt><trkpt lat="39.914464658452914" lon="8.675292964850078"><ele>14.0</ele><time>2026-04-27T08:09:54.994Z</time></trkpt><trkpt lat="39.91456052712786" lon="8.675424942870826"><ele>14.0</ele><time>2026-04-27T08:09:55.994Z</time></trkpt><trkpt lat="39.91464711792718" lon="8.675564706734082"><ele>14.0</ele><time>2026-04-27T08:09:56.994Z</time></trkpt><trkpt lat="39.91472683132705" lon="8.67570619154578"><ele>14.0</ele><time>2026-04-27T08:09:57.994Z</time></trkpt><trkpt lat="39.914807616283504" lon="8.675850655563961"><ele>14.0</ele><time>2026-04-27T08:09:58.994Z</time></trkpt><trkpt lat="39.91489293799225" lon="8.67599312720085"><ele>14.25</ele><time>2026-04-27T08:09:59.994Z</time></trkpt><trkpt lat="39.91498114798641" lon="8.676140039398998"><ele>14.5</ele><time>2026-04-27T08:10:00.994Z</time></trkpt><trkpt lat="39.915067636326704" lon="8.676290823010298"><ele>14.75</ele><time>2026-04-27T08:10:01.994Z</time></trkpt><trkpt lat="39.915153222312256" lon="8.676439547477624"><ele>15.0</ele><time>2026-04-27T08:10:02.994Z</time></trkpt><trkpt lat="39.91524346008034" lon="8.676587151961337"><ele>15.0</ele><time>2026-04-27T08:10:03.993Z</time></trkpt><trkpt lat="39.915329164734054" lon="8.676735368583508"><ele>15.0</ele><time>2026-04-27T08:10:04.994Z</time></trkpt><trkpt lat="39.91541750631422" lon="8.67688552900107"><ele>15.0</ele><time>2026-04-27T08:10:05.994Z</time></trkpt><trkpt lat="39.9155078255635" lon="8.677033878084208"><ele>15.0</ele><time>2026-04-27T08:10:06.993Z</time></trkpt><trkpt lat="39.915596631633264" lon="8.67718421822072"><ele>15.0</ele><time>2026-04-27T08:10:07.993Z</time></trkpt><trkpt lat="39.9156787387253" lon="8.677342050458247"><ele>15.0</ele><time>2026-04-27T08:10:08.993Z</time></trkpt><trkpt lat="39.91577046942298" lon="8.677490125207191"><ele>15.0</ele><time>2026-04-27T08:10:09.994Z</time></trkpt><trkpt lat="39.915858698018994" lon="8.677647483562476"><ele>15.0</ele><time>2026-04-27T08:10:10.993Z</time></trkpt><trkpt lat="39.91594729805032" lon="8.677798705936778"><ele>15.0</ele><time>2026-04-27T08:10:11.993Z</time></trkpt><trkpt lat="39.916037531092776" lon="8.677949352567422"><ele>15.0</ele><time>2026-04-27T08:10:12.994Z</time></trkpt><trkpt lat="39.916126214942395" lon="8.678100597857338"><ele>15.0</ele><time>2026-04-27T08:10:13.994Z</time></trkpt><trkpt lat="39.91621634811834" lon="8.678250193799936"><ele>15.0</ele><time>2026-04-27T08:10:14.994Z</time></trkpt><trkpt lat="39.91630505274641" lon="8.67840411010483"><ele>15.0</ele><time>2026-04-27T08:10:15.994Z</time></trkpt><trkpt lat="39.916395470775676" lon="8.67855728488922"><ele>15.0</ele><time>2026-04-27T08:10:16.994Z</time></trkpt><trkpt lat="39.916486182534165" lon="8.678710875954772"><ele>15.0</ele><time>2026-04-27T08:10:17.994Z</time></trkpt><trkpt lat="39.91657851714561" lon="8.678864582175219"><ele>15.0</ele><time>2026-04-27T08:10:18.994Z</time></trkpt><trkpt lat="39.916669317453206" lon="8.679014783511072"><ele>14.666666666666668</ele><time>2026-04-27T08:10:19.994Z</time></trkpt><trkpt lat="39.916757644364665" lon="8.679171477048714"><ele>14.333333333333334</ele><time>2026-04-27T08:10:20.994Z</time></trkpt><trkpt lat="39.91685461309023" lon="8.679327685066294"><ele>14.0</ele><time>2026-04-27T08:10:21.994Z</time></trkpt><trkpt lat="39.916944765959926" lon="8.679482685837145"><ele>14.0</ele><time>2026-04-27T08:10:22.994Z</time></trkpt><trkpt lat="39.917036570998356" lon="8.67964264813859"><ele>14.0</ele><time>2026-04-27T08:10:23.994Z</time></trkpt><trkpt lat="39.91712951033955" lon="8.679796458841386"><ele>14.0</ele><time>2026-04-27T08:10:24.994Z</time></trkpt><trkpt lat="39.91721477348383" lon="8.679957727987263"><ele>14.0</ele><time>2026-04-27T08:10:25.994Z</time></trkpt><trkpt lat="39.91731417610121" lon="8.680112760123892"><ele>14.0</ele><time>2026-04-27T08:10:26.994Z</time></trkpt><trkpt lat="39.9174079517818" lon="8.680277353811858"><ele>14.0</ele><time>2026-04-27T08:10:27.994Z</time></trkpt><trkpt lat="39.91750290333809" lon="8.68043143944713"><ele>14.0</ele><time>2026-04-27T08:10:28.994Z</time></trkpt><trkpt lat="39.9175935422906" lon="8.680592516834926"><ele>14.0</ele><time>2026-04-27T08:10:29.994Z</time></trkpt><trkpt lat="39.91768895775754" lon="8.680748813208465"><ele>14.0</ele><time>2026-04-27T08:10:30.994Z</time></trkpt><trkpt lat="39.91778099612976" lon="8.680907389127206"><ele>14.0</ele><time>2026-04-27T08:10:31.994Z</time></trkpt><trkpt lat="39.917873614204794" lon="8.6810720063921"><ele>14.0</ele><time>2026-04-27T08:10:32.994Z</time></trkpt><trkpt lat="39.91796450300079" lon="8.681234418791743"><ele>14.0</ele><time>2026-04-27T08:10:33.994Z</time></trkpt><trkpt lat="39.91805939476726" lon="8.681399054588397"><ele>14.333333333333334</ele><time>2026-04-27T08:10:34.994Z</time></trkpt><trkpt lat="39.91815150666945" lon="8.68156088411176"><ele>14.666666666666668</ele><time>2026-04-27T08:10:35.994Z</time></trkpt><trkpt lat="39.918244489322554" lon="8.68171395071217"><ele>15.0</ele><time>2026-04-27T08:10:36.994Z</time></trkpt><trkpt lat="39.91834069412732" lon="8.68186902508323"><ele>14.666666666666668</ele><time>2026-04-27T08:10:37.994Z</time></trkpt><trkpt lat="39.918430145681384" lon="8.682024156253522"><ele>14.333333333333334</ele><time>2026-04-27T08:10:38.994Z</time></trkpt><trkpt lat="39.91852419358843" lon="8.68217687533688"><ele>14.0</ele><time>2026-04-27T08:10:39.994Z</time></trkpt><trkpt lat="39.918612371215154" lon="8.682338664820838"><ele>14.0</ele><time>2026-04-27T08:10:40.994Z</time></trkpt><trkpt lat="39.918701603101375" lon="8.68249196037299"><ele>14.0</ele><time>2026-04-27T08:10:41.994Z</time></trkpt><trkpt lat="39.9187947530243" lon="8.682655215289206"><ele>14.0</ele><time>2026-04-27T08:10:42.994Z</time></trkpt><trkpt lat="39.918883879180406" lon="8.68281326497725"><ele>14.5</ele><time>2026-04-27T08:10:43.994Z</time></trkpt><trkpt lat="39.918974695318326" lon="8.682962062052022"><ele>15.0</ele><time>2026-04-27T08:10:44.994Z</time></trkpt><trkpt lat="39.91905045753593" lon="8.68308766280057"><ele>15.5</ele><time>2026-04-27T08:10:45.994Z</time></trkpt><trkpt lat="39.919108557585716" lon="8.683202042282733"><ele>16.0</ele><time>2026-04-27T08:10:46.994Z</time></trkpt><trkpt lat="39.91915222518439" lon="8.683287818657684"><ele>16.0</ele><time>2026-04-27T08:10:47.994Z</time></trkpt><trkpt lat="39.91918495565238" lon="8.683364237366423"><ele>16.0</ele><time>2026-04-27T08:10:48.994Z</time></trkpt><trkpt lat="39.91919090003794" lon="8.683454330138561"><ele>16.0</ele><time>2026-04-27T08:10:50.994Z</time></trkpt><trkpt lat="39.91912298354906" lon="8.683585458956362"><ele>16.0</ele><time>2026-04-27T08:10:52.994Z</time></trkpt><trkpt lat="39.91906321543867" lon="8.683684328882588"><ele>16.0</ele><time>2026-04-27T08:10:53.994Z</time></trkpt><trkpt lat="39.91900192059899" lon="8.683794119438442"><ele>16.75</ele><time>2026-04-27T08:10:54.994Z</time></trkpt><trkpt lat="39.918952484277526" lon="8.683928770777054"><ele>17.5</ele><time>2026-04-27T08:10:55.994Z</time></trkpt><trkpt lat="39.91890093722747" lon="8.684074173698315"><ele>18.25</ele><time>2026-04-27T08:10:56.994Z</time></trkpt><trkpt lat="39.91884988062792" lon="8.684238452960788"><ele>19.0</ele><time>2026-04-27T08:10:57.994Z</time></trkpt><trkpt lat="39.91882021183562" lon="8.684425211081285"><ele>19.0</ele><time>2026-04-27T08:10:58.994Z</time></trkpt><trkpt lat="39.91877389790464" lon="8.6846126077665"><ele>19.0</ele><time>2026-04-27T08:10:59.994Z</time></trkpt><trkpt lat="39.91870030101436" lon="8.68478616176653"><ele>19.0</ele><time>2026-04-27T08:11:00.994Z</time></trkpt><trkpt lat="39.91863895502379" lon="8.68494755828648"><ele>19.0</ele><time>2026-04-27T08:11:01.994Z</time></trkpt><trkpt lat="39.91858021485551" lon="8.685111954001076"><ele>19.0</ele><time>2026-04-27T08:11:02.994Z</time></trkpt><trkpt lat="39.91854421925542" lon="8.6852721118839"><ele>19.0</ele><time>2026-04-27T08:11:03.994Z</time></trkpt><trkpt lat="39.918507024337636" lon="8.685410493047408"><ele>19.0</ele><time>2026-04-27T08:11:04.994Z</time></trkpt><trkpt lat="39.91848316354458" lon="8.685539205508203"><ele>19.0</ele><time>2026-04-27T08:11:05.994Z</time></trkpt><trkpt lat="39.918470765700405" lon="8.685660727430161"><ele>19.0</ele><time>2026-04-27T08:11:06.994Z</time></trkpt><trkpt lat="39.91848271344155" lon="8.685778489297059"><ele>19.0</ele><time>2026-04-27T08:11:07.994Z</time></trkpt><trkpt lat="39.91850699681453" lon="8.685901094129951"><ele>19.0</ele><time>2026-04-27T08:11:08.994Z</time></trkpt><trkpt lat="39.918543672217325" lon="8.686026881713607"><ele>19.0</ele><time>2026-04-27T08:11:09.994Z</time></trkpt><trkpt lat="39.91858723365442" lon="8.686159671578283"><ele>19.0</ele><time>2026-04-27T08:11:10.994Z</time></trkpt><trkpt lat="39.918629694613486" lon="8.686281529313606"><ele>19.0</ele><time>2026-04-27T08:11:11.994Z</time></trkpt><trkpt lat="39.91867429840604" lon="8.686403977758635"><ele>18.5</ele><time>2026-04-27T08:11:12.994Z</time></trkpt><trkpt lat="39.918719217140776" lon="8.68653082120273"><ele>18.0</ele><time>2026-04-27T08:11:13.994Z</time></trkpt><trkpt lat="39.918775811264055" lon="8.686662340342462"><ele>17.5</ele><time>2026-04-27T08:11:14.994Z</time></trkpt><trkpt lat="39.918837539111394" lon="8.686788124836339"><ele>17.0</ele><time>2026-04-27T08:11:15.994Z</time></trkpt><trkpt lat="39.91890647125286" lon="8.686918545173134"><ele>17.0</ele><time>2026-04-27T08:11:16.994Z</time></trkpt><trkpt lat="39.91897606029202" lon="8.68706264481627"><ele>17.0</ele><time>2026-04-27T08:11:17.994Z</time></trkpt><trkpt lat="39.919067519013346" lon="8.687181317674357"><ele>17.0</ele><time>2026-04-27T08:11:18.994Z</time></trkpt><trkpt lat="39.91915975308906" lon="8.687289192174385"><ele>17.0</ele><time>2026-04-27T08:11:19.994Z</time></trkpt><trkpt lat="39.91926390212167" lon="8.687398155049586"><ele>17.0</ele><time>2026-04-27T08:11:20.994Z</time></trkpt><trkpt lat="39.91937878579556" lon="8.687519305307847"><ele>17.0</ele><time>2026-04-27T08:11:21.994Z</time></trkpt><trkpt lat="39.91949987742083" lon="8.687652651087992"><ele>17.0</ele><time>2026-04-27T08:11:22.994Z</time></trkpt><trkpt lat="39.919621092128864" lon="8.687781171622476"><ele>17.0</ele><time>2026-04-27T08:11:23.994Z</time></trkpt><trkpt lat="39.91973977135712" lon="8.687906465693485"><ele>17.0</ele><time>2026-04-27T08:11:24.994Z</time></trkpt><trkpt lat="39.919870826731874" lon="8.688044529497057"><ele>17.0</ele><time>2026-04-27T08:11:25.994Z</time></trkpt><trkpt lat="39.920001023646265" lon="8.688171710655224"><ele>17.0</ele><time>2026-04-27T08:11:26.994Z</time></trkpt><trkpt lat="39.92012458896446" lon="8.688303352319185"><ele>17.0</ele><time>2026-04-27T08:11:27.994Z</time></trkpt><trkpt lat="39.92024747913034" lon="8.688441809094128"><ele>17.0</ele><time>2026-04-27T08:11:28.994Z</time></trkpt><trkpt lat="39.92036754490303" lon="8.688564627988242"><ele>16.0</ele><time>2026-04-27T08:11:29.994Z</time></trkpt><trkpt lat="39.92047793397876" lon="8.688690259164366"><ele>15.0</ele><time>2026-04-27T08:11:30.994Z</time></trkpt><trkpt lat="39.92059568020807" lon="8.688816676645914"><ele>14.0</ele><time>2026-04-27T08:11:31.994Z</time></trkpt><trkpt lat="39.92072536429383" lon="8.688974847046964"><ele>14.0</ele><time>2026-04-27T08:11:32.994Z</time></trkpt><trkpt lat="39.920833055977326" lon="8.689134802934394"><ele>14.0</ele><time>2026-04-27T08:11:33.994Z</time></trkpt><trkpt lat="39.92091660398137" lon="8.689283734718492"><ele>14.0</ele><time>2026-04-27T08:11:34.994Z</time></trkpt><trkpt lat="39.92086053006199" lon="8.689124714258977"><ele>14.0</ele><time>2026-04-27T08:11:35.994Z</time></trkpt><trkpt lat="39.92093655449064" lon="8.68927495506275"><ele>14.0</ele><time>2026-04-27T08:11:36.994Z</time></trkpt><trkpt lat="39.92104010805828" lon="8.689409472547503"><ele>14.0</ele><time>2026-04-27T08:11:37.994Z</time></trkpt><trkpt lat="39.921124384186825" lon="8.689550428889593"><ele>14.0</ele><time>2026-04-27T08:11:38.994Z</time></trkpt><trkpt lat="39.921200870563" lon="8.689698228763653"><ele>14.0</ele><time>2026-04-27T08:11:39.994Z</time></trkpt><trkpt lat="39.921287803649236" lon="8.689808050865615"><ele>14.2</ele><time>2026-04-27T08:11:40.994Z</time></trkpt><trkpt lat="39.92135705503544" lon="8.689921499032522"><ele>14.399999999999999</ele><time>2026-04-27T08:11:41.994Z</time></trkpt><trkpt lat="39.921421773571666" lon="8.690019065503174"><ele>14.6</ele><time>2026-04-27T08:11:42.994Z</time></trkpt><trkpt lat="39.92148237210121" lon="8.690113792386729"><ele>14.8</ele><time>2026-04-27T08:11:43.994Z</time></trkpt><trkpt lat="39.92154824011497" lon="8.69021566111177"><ele>15.0</ele><time>2026-04-27T08:11:44.994Z</time></trkpt><trkpt lat="39.92161144949411" lon="8.690318875619806"><ele>15.25</ele><time>2026-04-27T08:11:45.994Z</time></trkpt><trkpt lat="39.92167573402576" lon="8.690422082301566"><ele>15.5</ele><time>2026-04-27T08:11:46.994Z</time></trkpt><trkpt lat="39.921748541911846" lon="8.690532667140868"><ele>15.75</ele><time>2026-04-27T08:11:47.994Z</time></trkpt><trkpt lat="39.9218289725929" lon="8.690656632341378"><ele>16.0</ele><time>2026-04-27T08:11:48.994Z</time></trkpt><trkpt lat="39.92190083636597" lon="8.690795130843634"><ele>16.0</ele><time>2026-04-27T08:11:49.994Z</time></trkpt><trkpt lat="39.92198010066382" lon="8.690906544738388"><ele>16.0</ele><time>2026-04-27T08:11:50.994Z</time></trkpt><trkpt lat="39.92206721871515" lon="8.690958915333313"><ele>16.0</ele><time>2026-04-27T08:11:51.994Z</time></trkpt><trkpt lat="39.922105247764904" lon="8.691027550250519"><ele>16.0</ele><time>2026-04-27T08:11:52.994Z</time></trkpt><trkpt lat="39.92211152036004" lon="8.691123895290294"><ele>16.0</ele><time>2026-04-27T08:11:55.994Z</time></trkpt><trkpt lat="39.92204483118855" lon="8.691235208026386"><ele>16.0</ele><time>2026-04-27T08:11:57.994Z</time></trkpt><trkpt lat="39.922113974256234" lon="8.691330779199742"><ele>16.0</ele><time>2026-04-27T08:12:00.994Z</time></trkpt><trkpt lat="39.92218621961278" lon="8.69137384549884"><ele>16.0</ele><time>2026-04-27T08:12:01.994Z</time></trkpt><trkpt lat="39.92228764053887" lon="8.691427634781542"><ele>16.0</ele><time>2026-04-27T08:12:02.994Z</time></trkpt><trkpt lat="39.92239396245572" lon="8.691515431636153"><ele>16.0</ele><time>2026-04-27T08:12:03.994Z</time></trkpt><trkpt lat="39.922501272566926" lon="8.691583437076725"><ele>15.5</ele><time>2026-04-27T08:12:04.994Z</time></trkpt><trkpt lat="39.92261130145148" lon="8.691653165460785"><ele>15.0</ele><time>2026-04-27T08:12:05.994Z</time></trkpt><trkpt lat="39.92272231948873" lon="8.691723007567"><ele>14.5</ele><time>2026-04-27T08:12:06.993Z</time></trkpt><trkpt lat="39.92281543086988" lon="8.691785060991055"><ele>14.0</ele><time>2026-04-27T08:12:07.992Z</time></trkpt><trkpt lat="39.92291028915833" lon="8.69184503209604"><ele>14.0</ele><time>2026-04-27T08:12:08.992Z</time></trkpt><trkpt lat="39.92299800136769" lon="8.691900617260192"><ele>13.999999999999998</ele><time>2026-04-27T08:12:09.993Z</time></trkpt><trkpt lat="39.923088888915665" lon="8.69196227969526"><ele>13.999999999999998</ele><time>2026-04-27T08:12:10.993Z</time></trkpt><trkpt lat="39.92317563150954" lon="8.69202338061447"><ele>14.0</ele><time>2026-04-27T08:12:11.993Z</time></trkpt><trkpt lat="39.92327707451892" lon="8.692087858557297"><ele>14.0</ele><time>2026-04-27T08:12:12.993Z</time></trkpt><trkpt lat="39.92337368684184" lon="8.692159495908712"><ele>14.0</ele><time>2026-04-27T08:12:13.993Z</time></trkpt><trkpt lat="39.923468827693114" lon="8.69222373599358"><ele>13.999999999999998</ele><time>2026-04-27T08:12:14.993Z</time></trkpt><trkpt lat="39.92356611490655" lon="8.69228867084655"><ele>13.999999999999998</ele><time>2026-04-27T08:12:15.993Z</time></trkpt><trkpt lat="39.923664797949215" lon="8.692356911180008"><ele>14.0</ele><time>2026-04-27T08:12:16.993Z</time></trkpt><trkpt lat="39.9237591298985" lon="8.692426770201775"><ele>14.0</ele><time>2026-04-27T08:12:17.993Z</time></trkpt><trkpt lat="39.92385448819847" lon="8.692491438676342"><ele>14.0</ele><time>2026-04-27T08:12:18.993Z</time></trkpt><trkpt lat="39.92394383558199" lon="8.69254757722246"><ele>13.999999999999998</ele><time>2026-04-27T08:12:19.993Z</time></trkpt><trkpt lat="39.92402844294555" lon="8.69260845155583"><ele>13.999999999999998</ele><time>2026-04-27T08:12:20.993Z</time></trkpt><trkpt lat="39.9241175398028" lon="8.69266867886349"><ele>14.0</ele><time>2026-04-27T08:12:21.993Z</time></trkpt><trkpt lat="39.92420988469861" lon="8.692726095252759"><ele>14.0</ele><time>2026-04-27T08:12:22.993Z</time></trkpt><trkpt lat="39.92429957284329" lon="8.69280545861523"><ele>14.399999999999999</ele><time>2026-04-27T08:12:23.993Z</time></trkpt><trkpt lat="39.9243930008359" lon="8.69286829961135"><ele>14.799999999999999</ele><time>2026-04-27T08:12:24.993Z</time></trkpt><trkpt lat="39.92448880038613" lon="8.692932735744826"><ele>15.200000000000001</ele><time>2026-04-27T08:12:25.993Z</time></trkpt><trkpt lat="39.92459288832611" lon="8.692986093792035"><ele>15.600000000000001</ele><time>2026-04-27T08:12:26.993Z</time></trkpt><trkpt lat="39.924694563265994" lon="8.693074669044172"><ele>16.0</ele><time>2026-04-27T08:12:27.993Z</time></trkpt><trkpt lat="39.92480563912825" lon="8.693143279490883"><ele>16.0</ele><time>2026-04-27T08:12:28.993Z</time></trkpt><trkpt lat="39.92491314446181" lon="8.693212622767652"><ele>16.0</ele><time>2026-04-27T08:12:29.993Z</time></trkpt><trkpt lat="39.925021549681986" lon="8.693285599765192"><ele>16.0</ele><time>2026-04-27T08:12:30.993Z</time></trkpt><trkpt lat="39.925136478830794" lon="8.693365199282498"><ele>16.0</ele><time>2026-04-27T08:12:31.993Z</time></trkpt><trkpt lat="39.925253967918394" lon="8.693449033736185"><ele>16.0</ele><time>2026-04-27T08:12:32.993Z</time></trkpt><trkpt lat="39.92537431139175" lon="8.693529714858991"><ele>16.0</ele><time>2026-04-27T08:12:33.993Z</time></trkpt><trkpt lat="39.92549011964009" lon="8.693605788382758"><ele>16.0</ele><time>2026-04-27T08:12:34.993Z</time></trkpt><trkpt lat="39.92560255572209" lon="8.693684261175262"><ele>16.0</ele><time>2026-04-27T08:12:35.993Z</time></trkpt><trkpt lat="39.925717804828416" lon="8.693764667752246"><ele>16.0</ele><time>2026-04-27T08:12:36.993Z</time></trkpt><trkpt lat="39.92579789702474" lon="8.693844910261241"><ele>16.0</ele><time>2026-04-27T08:12:37.993Z</time></trkpt><trkpt lat="39.92587588832258" lon="8.693902514473217"><ele>16.0</ele><time>2026-04-27T08:12:38.993Z</time></trkpt><trkpt lat="39.92594986223541" lon="8.693954366305242"><ele>16.0</ele><time>2026-04-27T08:12:39.993Z</time></trkpt><trkpt lat="39.926014381498675" lon="8.693998053069313"><ele>16.0</ele><time>2026-04-27T08:12:40.993Z</time></trkpt><trkpt lat="39.92612604004109" lon="8.694067561631607"><ele>15.833333333333332</ele><time>2026-04-27T08:12:42.993Z</time></trkpt><trkpt lat="39.92620165921666" lon="8.694110130596593"><ele>15.666666666666666</ele><time>2026-04-27T08:12:44.993Z</time></trkpt><trkpt lat="39.926268216819416" lon="8.69415692616161"><ele>15.5</ele><time>2026-04-27T08:17:25.992Z</time></trkpt><trkpt lat="39.92623002768071" lon="8.69407485704566"><ele>15.333333333333332</ele><time>2026-04-27T08:17:51.992Z</time></trkpt><trkpt lat="39.9261101253824" lon="8.694017404675984"><ele>15.166666666666666</ele><time>2026-04-27T08:17:53.992Z</time></trkpt><trkpt lat="39.9260484129393" lon="8.693995382438944"><ele>15.0</ele><time>2026-04-27T08:17:54.992Z</time></trkpt><trkpt lat="39.92599272466102" lon="8.693933561910269"><ele>15.0</ele><time>2026-04-27T08:17:55.992Z</time></trkpt><trkpt lat="39.925934338717475" lon="8.693897499705253"><ele>15.0</ele><time>2026-04-27T08:17:56.992Z</time></trkpt><trkpt lat="39.92581186610134" lon="8.69397880099226"><ele>15.0</ele><time>2026-04-27T08:17:57.992Z</time></trkpt><trkpt lat="39.92571791426128" lon="8.694014443295137"><ele>15.0</ele><time>2026-04-27T08:17:58.992Z</time></trkpt><trkpt lat="39.92561125176293" lon="8.694064214490831"><ele>15.0</ele><time>2026-04-27T08:17:59.992Z</time></trkpt><trkpt lat="39.92550379699201" lon="8.694155667205454"><ele>15.25</ele><time>2026-04-27T08:18:00.992Z</time></trkpt><trkpt lat="39.92540069303783" lon="8.694209865766432"><ele>15.5</ele><time>2026-04-27T08:18:01.992Z</time></trkpt><trkpt lat="39.925289258980925" lon="8.694266156114699"><ele>15.75</ele><time>2026-04-27T08:18:02.992Z</time></trkpt><trkpt lat="39.925174635235095" lon="8.694328259134416"><ele>16.0</ele><time>2026-04-27T08:18:03.992Z</time></trkpt><trkpt lat="39.9250612723156" lon="8.694396145689982"><ele>16.0</ele><time>2026-04-27T08:18:04.992Z</time></trkpt><trkpt lat="39.92494706907643" lon="8.694463224146936"><ele>16.0</ele><time>2026-04-27T08:18:05.992Z</time></trkpt><trkpt lat="39.92482623402869" lon="8.69453717253172"><ele>16.0</ele><time>2026-04-27T08:18:06.992Z</time></trkpt><trkpt lat="39.924706500463394" lon="8.694606979704899"><ele>16.0</ele><time>2026-04-27T08:18:07.992Z</time></trkpt><trkpt lat="39.924578049410584" lon="8.694680407203858"><ele>16.0</ele><time>2026-04-27T08:18:08.992Z</time></trkpt><trkpt lat="39.92445347094224" lon="8.694750936746402"><ele>16.0</ele><time>2026-04-27T08:18:09.992Z</time></trkpt><trkpt lat="39.924327552326616" lon="8.694796770706546"><ele>16.0</ele><time>2026-04-27T08:18:10.992Z</time></trkpt><trkpt lat="39.92422105555759" lon="8.694856432353534"><ele>16.0</ele><time>2026-04-27T08:18:11.992Z</time></trkpt><trkpt lat="39.924106636577406" lon="8.694920532085552"><ele>16.2</ele><time>2026-04-27T08:18:12.992Z</time></trkpt><trkpt lat="39.92398753359543" lon="8.694987100449678"><ele>16.400000000000002</ele><time>2026-04-27T08:18:13.992Z</time></trkpt><trkpt lat="39.92387101453483" lon="8.695048317185023"><ele>16.6</ele><time>2026-04-27T08:18:14.992Z</time></trkpt><trkpt lat="39.923802720627556" lon="8.695084197707022"><ele>16.8</ele><time>2026-04-27T08:18:15.992Z</time></trkpt><trkpt lat="39.92373382607584" lon="8.695119124061407"><ele>17.0</ele><time>2026-04-27T08:18:16.992Z</time></trkpt><trkpt lat="39.92367311433835" lon="8.695149124295655"><ele>17.0</ele><time>2026-04-27T08:18:17.992Z</time></trkpt><trkpt lat="39.92361022818134" lon="8.695179493964723"><ele>17.0</ele><time>2026-04-27T08:18:18.992Z</time></trkpt><trkpt lat="39.923535966066474" lon="8.69521535662795"><ele>17.0</ele><time>2026-04-27T08:18:19.992Z</time></trkpt><trkpt lat="39.92350552371304" lon="8.695437764331508"><ele>17.0</ele><time>2026-04-27T08:18:20.992Z</time></trkpt><trkpt lat="39.92343959493916" lon="8.695551314232198"><ele>17.0</ele><time>2026-04-27T08:18:21.992Z</time></trkpt><trkpt lat="39.92336620139409" lon="8.69566288874781"><ele>16.6</ele><time>2026-04-27T08:18:22.992Z</time></trkpt><trkpt lat="39.92329674935566" lon="8.695777466281292"><ele>16.2</ele><time>2026-04-27T08:18:23.991Z</time></trkpt><trkpt lat="39.923226673440226" lon="8.695893584237252"><ele>15.8</ele><time>2026-04-27T08:18:24.991Z</time></trkpt><trkpt lat="39.92315697343076" lon="8.696001562437194"><ele>15.4</ele><time>2026-04-27T08:18:25.991Z</time></trkpt><trkpt lat="39.92308826796836" lon="8.696116985810868"><ele>15.0</ele><time>2026-04-27T08:18:26.991Z</time></trkpt><trkpt lat="39.92301498519498" lon="8.696238026156514"><ele>15.0</ele><time>2026-04-27T08:18:27.991Z</time></trkpt><trkpt lat="39.92293414798752" lon="8.69636017195546"><ele>15.0</ele><time>2026-04-27T08:18:28.991Z</time></trkpt><trkpt lat="39.922868477409935" lon="8.696468989429897"><ele>15.0</ele><time>2026-04-27T08:18:29.991Z</time></trkpt><trkpt lat="39.9228063500788" lon="8.69657849686405"><ele>15.0</ele><time>2026-04-27T08:18:30.99Z</time></trkpt><trkpt lat="39.92274941318191" lon="8.696700928683237"><ele>15.0</ele><time>2026-04-27T08:18:31.99Z</time></trkpt><trkpt lat="39.922677932779216" lon="8.696807399658079"><ele>15.0</ele><time>2026-04-27T08:18:32.991Z</time></trkpt><trkpt lat="39.92260668932353" lon="8.696916925967937"><ele>15.0</ele><time>2026-04-27T08:18:33.99Z</time></trkpt><trkpt lat="39.92253651909342" lon="8.697024684968573"><ele>15.0</ele><time>2026-04-27T08:18:34.99Z</time></trkpt><trkpt lat="39.922487365120816" lon="8.6971254708827"><ele>15.0</ele><time>2026-04-27T08:18:35.99Z</time></trkpt><trkpt lat="39.92244157173929" lon="8.697223799992779"><ele>15.0</ele><time>2026-04-27T08:18:36.991Z</time></trkpt><trkpt lat="39.92239526584264" lon="8.697311609757937"><ele>15.25</ele><time>2026-04-27T08:18:37.991Z</time></trkpt><trkpt lat="39.92232143920831" lon="8.697454530531784"><ele>15.5</ele><time>2026-04-27T08:18:38.991Z</time></trkpt><trkpt lat="39.92223777657283" lon="8.697604209882714"><ele>15.75</ele><time>2026-04-27T08:18:39.991Z</time></trkpt><trkpt lat="39.922189680325424" lon="8.697736461522885"><ele>16.0</ele><time>2026-04-27T08:18:40.991Z</time></trkpt><trkpt lat="39.92211353444745" lon="8.697927104615308"><ele>16.0</ele><time>2026-04-27T08:18:41.991Z</time></trkpt><trkpt lat="39.922065789322424" lon="8.698065873579928"><ele>16.0</ele><time>2026-04-27T08:18:42.991Z</time></trkpt><trkpt lat="39.922017231362005" lon="8.698206915083759"><ele>16.0</ele><time>2026-04-27T08:18:43.991Z</time></trkpt><trkpt lat="39.92197214447703" lon="8.698341276553327"><ele>16.0</ele><time>2026-04-27T08:18:44.991Z</time></trkpt><trkpt lat="39.92192416258826" lon="8.698467227137318"><ele>16.0</ele><time>2026-04-27T08:18:45.991Z</time></trkpt><trkpt lat="39.921875445541225" lon="8.698602849373222"><ele>16.0</ele><time>2026-04-27T08:18:46.991Z</time></trkpt><trkpt lat="39.921824074191605" lon="8.698740034027903"><ele>16.0</ele><time>2026-04-27T08:18:47.991Z</time></trkpt><trkpt lat="39.921769248039595" lon="8.698887120227116"><ele>16.0</ele><time>2026-04-27T08:18:48.991Z</time></trkpt><trkpt lat="39.92171376239936" lon="8.699033985711756"><ele>16.25</ele><time>2026-04-27T08:18:49.991Z</time></trkpt><trkpt lat="39.921661306052414" lon="8.699177829636701"><ele>16.5</ele><time>2026-04-27T08:18:50.991Z</time></trkpt><trkpt lat="39.92161518274423" lon="8.699324747233618"><ele>16.75</ele><time>2026-04-27T08:18:51.991Z</time></trkpt><trkpt lat="39.92157672185873" lon="8.699467494114955"><ele>17.0</ele><time>2026-04-27T08:18:52.991Z</time></trkpt><trkpt lat="39.92154448861741" lon="8.699601947598964"><ele>17.0</ele><time>2026-04-27T08:18:53.991Z</time></trkpt><trkpt lat="39.92151420326636" lon="8.699716987343644"><ele>17.0</ele><time>2026-04-27T08:18:54.991Z</time></trkpt><trkpt lat="39.921473681166056" lon="8.699817600948943"><ele>17.0</ele><time>2026-04-27T08:18:55.991Z</time></trkpt><trkpt lat="39.92141720842177" lon="8.69989475753259"><ele>17.0</ele><time>2026-04-27T08:18:56.991Z</time></trkpt><trkpt lat="39.921345324051316" lon="8.699948933815572"><ele>17.0</ele><time>2026-04-27T08:18:57.991Z</time></trkpt><trkpt lat="39.92126553695522" lon="8.699976716530378"><ele>17.0</ele><time>2026-04-27T08:18:58.991Z</time></trkpt><trkpt lat="39.92116767856332" lon="8.69993940285308"><ele>17.0</ele><time>2026-04-27T08:18:59.991Z</time></trkpt><trkpt lat="39.921075806083266" lon="8.69995193597872"><ele>17.0</ele><time>2026-04-27T08:19:00.991Z</time></trkpt><trkpt lat="39.920984416656026" lon="8.69995086684522"><ele>17.0</ele><time>2026-04-27T08:19:01.991Z</time></trkpt><trkpt lat="39.9209057257867" lon="8.699963608778782"><ele>17.0</ele><time>2026-04-27T08:19:02.991Z</time></trkpt><trkpt lat="39.920830525811134" lon="8.70000729227768"><ele>17.0</ele><time>2026-04-27T08:19:03.991Z</time></trkpt><trkpt lat="39.92076929046387" lon="8.700104303289358"><ele>17.0</ele><time>2026-04-27T08:19:04.991Z</time></trkpt><trkpt lat="39.92070191237446" lon="8.700192375680743"><ele>17.25</ele><time>2026-04-27T08:19:05.991Z</time></trkpt><trkpt lat="39.92063789680176" lon="8.700280098168024"><ele>17.5</ele><time>2026-04-27T08:19:06.991Z</time></trkpt><trkpt lat="39.920559542167986" lon="8.70038746988304"><ele>17.75</ele><time>2026-04-27T08:19:07.991Z</time></trkpt><trkpt lat="39.9204782086972" lon="8.700506420180304"><ele>18.0</ele><time>2026-04-27T08:19:08.991Z</time></trkpt><trkpt lat="39.92040224101576" lon="8.700639529222986"><ele>18.0</ele><time>2026-04-27T08:19:09.991Z</time></trkpt><trkpt lat="39.92033399494376" lon="8.70077481834812"><ele>18.0</ele><time>2026-04-27T08:19:10.991Z</time></trkpt><trkpt lat="39.92027229104484" lon="8.70090676812356"><ele>18.0</ele><time>2026-04-27T08:19:11.991Z</time></trkpt><trkpt lat="39.92021176157376" lon="8.701051269963923"><ele>18.0</ele><time>2026-04-27T08:19:12.991Z</time></trkpt><trkpt lat="39.92015459892267" lon="8.701197157487407"><ele>17.75</ele><time>2026-04-27T08:19:13.991Z</time></trkpt><trkpt lat="39.92010162259554" lon="8.701343554967943"><ele>17.5</ele><time>2026-04-27T08:19:14.991Z</time></trkpt><trkpt lat="39.92004821537588" lon="8.701467856778365"><ele>17.25</ele><time>2026-04-27T08:19:15.991Z</time></trkpt><trkpt lat="39.91998249802809" lon="8.701595063625598"><ele>17.0</ele><time>2026-04-27T08:19:16.991Z</time></trkpt><trkpt lat="39.91990955580717" lon="8.701738275969765"><ele>17.0</ele><time>2026-04-27T08:19:17.991Z</time></trkpt><trkpt lat="39.91985197005488" lon="8.701853463625142"><ele>17.0</ele><time>2026-04-27T08:19:18.991Z</time></trkpt><trkpt lat="39.91980163936197" lon="8.7019889161965"><ele>17.0</ele><time>2026-04-27T08:19:19.991Z</time></trkpt><trkpt lat="39.91976074846316" lon="8.702125241445108"><ele>17.0</ele><time>2026-04-27T08:19:20.991Z</time></trkpt><trkpt lat="39.91972617275376" lon="8.70227753908021"><ele>17.5</ele><time>2026-04-27T08:19:21.991Z</time></trkpt><trkpt lat="39.91968876975828" lon="8.702420401357845"><ele>18.0</ele><time>2026-04-27T08:19:22.991Z</time></trkpt><trkpt lat="39.91963628940329" lon="8.7026099007931"><ele>18.5</ele><time>2026-04-27T08:19:23.991Z</time></trkpt><trkpt lat="39.91958787133811" lon="8.702760006514675"><ele>19.0</ele><time>2026-04-27T08:19:24.991Z</time></trkpt><trkpt lat="39.91954405155609" lon="8.702946014778096"><ele>19.0</ele><time>2026-04-27T08:19:25.991Z</time></trkpt><trkpt lat="39.919500499146494" lon="8.703110714590341"><ele>19.0</ele><time>2026-04-27T08:19:26.991Z</time></trkpt><trkpt lat="39.91946132305164" lon="8.703273349782915"><ele>19.0</ele><time>2026-04-27T08:19:27.991Z</time></trkpt><trkpt lat="39.91941884482604" lon="8.70343297789453"><ele>19.0</ele><time>2026-04-27T08:19:28.991Z</time></trkpt><trkpt lat="39.9193804637882" lon="8.703595229483618"><ele>18.75</ele><time>2026-04-27T08:19:29.991Z</time></trkpt><trkpt lat="39.91933189953845" lon="8.703743066372793"><ele>18.5</ele><time>2026-04-27T08:19:30.991Z</time></trkpt><trkpt lat="39.919276178503026" lon="8.703900817476555"><ele>18.25</ele><time>2026-04-27T08:19:31.991Z</time></trkpt><trkpt lat="39.91922826525035" lon="8.704062620796753"><ele>18.0</ele><time>2026-04-27T08:19:32.991Z</time></trkpt><trkpt lat="39.91918380717064" lon="8.704203118332577"><ele>18.0</ele><time>2026-04-27T08:19:33.991Z</time></trkpt><trkpt lat="39.9191502223343" lon="8.704319578898522"><ele>18.0</ele><time>2026-04-27T08:19:34.991Z</time></trkpt><trkpt lat="39.91913350897804" lon="8.704403948837928"><ele>18.0</ele><time>2026-04-27T08:19:35.991Z</time></trkpt><trkpt lat="39.91912939166175" lon="8.704495897738484"><ele>18.0</ele><time>2026-04-27T08:19:37.991Z</time></trkpt><trkpt lat="39.91920688199443" lon="8.704574185776123"><ele>18.0</ele><time>2026-04-27T08:19:39.991Z</time></trkpt><trkpt lat="39.91928020063597" lon="8.704648373767725"><ele>18.0</ele><time>2026-04-27T08:19:40.991Z</time></trkpt><trkpt lat="39.919353648943456" lon="8.704717779038425"><ele>18.0</ele><time>2026-04-27T08:19:41.991Z</time></trkpt><trkpt lat="39.91941245995471" lon="8.704768911375647"><ele>18.0</ele><time>2026-04-27T08:19:42.991Z</time></trkpt><trkpt lat="39.91945529537092" lon="8.7048375270181"><ele>18.0</ele><time>2026-04-27T08:19:44.991Z</time></trkpt><trkpt lat="39.919519072140005" lon="8.70489134749629"><ele>18.0</ele><time>2026-04-27T08:19:50.991Z</time></trkpt><trkpt lat="39.919622732033794" lon="8.70477398376198"><ele>18.0</ele><time>2026-04-27T08:19:52.991Z</time></trkpt><trkpt lat="39.9195985215149" lon="8.704973259347053"><ele>18.0</ele><time>2026-04-27T08:19:53.991Z</time></trkpt><trkpt lat="39.919659192095814" lon="8.705035810391726"><ele>18.0</ele><time>2026-04-27T08:19:55.991Z</time></trkpt><trkpt lat="39.919691782034214" lon="8.70515322839032"><ele>18.0</ele><time>2026-04-27T08:19:57.991Z</time></trkpt><trkpt lat="39.91967455709865" lon="8.705247589730334"><ele>18.0</ele><time>2026-04-27T08:19:58.991Z</time></trkpt><trkpt lat="39.91965372751925" lon="8.705356872605115"><ele>18.0</ele><time>2026-04-27T08:19:59.991Z</time></trkpt><trkpt lat="39.919638793862724" lon="8.705458724743632"><ele>18.0</ele><time>2026-04-27T08:20:00.991Z</time></trkpt><trkpt lat="39.91962285565219" lon="8.705554976020286"><ele>18.0</ele><time>2026-04-27T08:20:01.991Z</time></trkpt><trkpt lat="39.91960736969782" lon="8.705694752698653"><ele>18.0</ele><time>2026-04-27T08:20:02.991Z</time></trkpt><trkpt lat="39.91959202727896" lon="8.705837851609438"><ele>18.0</ele><time>2026-04-27T08:20:03.991Z</time></trkpt><trkpt lat="39.91957958908662" lon="8.705985845236537"><ele>18.0</ele><time>2026-04-27T08:20:04.991Z</time></trkpt><trkpt lat="39.919564190263145" lon="8.706130119067428"><ele>18.0</ele><time>2026-04-27T08:20:05.991Z</time></trkpt><trkpt lat="39.919550992964666" lon="8.70627376051232"><ele>18.0</ele><time>2026-04-27T08:20:06.991Z</time></trkpt><trkpt lat="39.91953039406728" lon="8.706429171014223"><ele>18.0</ele><time>2026-04-27T08:20:07.991Z</time></trkpt><trkpt lat="39.919513494028195" lon="8.706590497930106"><ele>18.0</ele><time>2026-04-27T08:20:08.991Z</time></trkpt><trkpt lat="39.91949912922895" lon="8.706757682389497"><ele>18.0</ele><time>2026-04-27T08:20:09.991Z</time></trkpt><trkpt lat="39.91948561908464" lon="8.706924792612428"><ele>18.0</ele><time>2026-04-27T08:20:10.991Z</time></trkpt><trkpt lat="39.91947568536692" lon="8.707073955397739"><ele>18.0</ele><time>2026-04-27T08:20:11.991Z</time></trkpt><trkpt lat="39.91945747838092" lon="8.70721496261971"><ele>18.0</ele><time>2026-04-27T08:20:12.991Z</time></trkpt><trkpt lat="39.91944521874095" lon="8.707351697141757"><ele>18.0</ele><time>2026-04-27T08:20:13.991Z</time></trkpt><trkpt lat="39.919426652370205" lon="8.707492218248804"><ele>18.0</ele><time>2026-04-27T08:20:14.991Z</time></trkpt><trkpt lat="39.91941639331598" lon="8.707633698850426"><ele>18.2</ele><time>2026-04-27T08:20:15.991Z</time></trkpt><trkpt lat="39.919412320756805" lon="8.707779929509806"><ele>18.4</ele><time>2026-04-27T08:20:16.991Z</time></trkpt><trkpt lat="39.919408264012674" lon="8.707916734493788"><ele>18.599999999999998</ele><time>2026-04-27T08:20:17.991Z</time></trkpt><trkpt lat="39.91939659244808" lon="8.70805477317346"><ele>18.8</ele><time>2026-04-27T08:20:18.991Z</time></trkpt><trkpt lat="39.919380806772566" lon="8.70819937392"><ele>19.0</ele><time>2026-04-27T08:20:19.991Z</time></trkpt><trkpt lat="39.91935460703029" lon="8.708346266519282"><ele>19.0</ele><time>2026-04-27T08:20:20.991Z</time></trkpt><trkpt lat="39.91932536036402" lon="8.708492761886381"><ele>19.0</ele><time>2026-04-27T08:20:21.991Z</time></trkpt><trkpt lat="39.91929832904993" lon="8.70865154440907"><ele>19.0</ele><time>2026-04-27T08:20:22.991Z</time></trkpt><trkpt lat="39.91927241136431" lon="8.708819338795328"><ele>19.0</ele><time>2026-04-27T08:20:23.991Z</time></trkpt><trkpt lat="39.9192471011222" lon="8.70898077319414"><ele>19.5</ele><time>2026-04-27T08:20:24.991Z</time></trkpt><trkpt lat="39.91922575200618" lon="8.709141766129077"><ele>20.0</ele><time>2026-04-27T08:20:25.991Z</time></trkpt><trkpt lat="39.919200453463525" lon="8.709314448127488"><ele>20.5</ele><time>2026-04-27T08:20:26.991Z</time></trkpt><trkpt lat="39.919175720972255" lon="8.709482152013587"><ele>21.0</ele><time>2026-04-27T08:20:27.991Z</time></trkpt><trkpt lat="39.91915100688708" lon="8.70965373650138"><ele>21.0</ele><time>2026-04-27T08:20:28.991Z</time></trkpt><trkpt lat="39.91912727105478" lon="8.709806559750895"><ele>21.0</ele><time>2026-04-27T08:20:29.99Z</time></trkpt><trkpt lat="39.919104833837075" lon="8.709959387543721"><ele>21.0</ele><time>2026-04-27T08:20:30.989Z</time></trkpt><trkpt lat="39.919085248527765" lon="8.710122417108293"><ele>21.0</ele><time>2026-04-27T08:20:31.989Z</time></trkpt><trkpt lat="39.91906238095481" lon="8.710283306435974"><ele>21.0</ele><time>2026-04-27T08:20:32.99Z</time></trkpt><trkpt lat="39.91904432074096" lon="8.710445886597723"><ele>21.0</ele><time>2026-04-27T08:20:33.99Z</time></trkpt><trkpt lat="39.91902698970263" lon="8.7106022788606"><ele>21.0</ele><time>2026-04-27T08:20:34.99Z</time></trkpt><trkpt lat="39.91900653960431" lon="8.710750126247202"><ele>21.0</ele><time>2026-04-27T08:20:35.99Z</time></trkpt><trkpt lat="39.91897793311281" lon="8.710906954914867"><ele>21.0</ele><time>2026-04-27T08:20:36.99Z</time></trkpt><trkpt lat="39.91894922288329" lon="8.711078007615177"><ele>21.0</ele><time>2026-04-27T08:20:37.99Z</time></trkpt><trkpt lat="39.91891691824051" lon="8.711247473390399"><ele>21.0</ele><time>2026-04-27T08:20:38.989Z</time></trkpt><trkpt lat="39.91889374672593" lon="8.711414512817628"><ele>21.0</ele><time>2026-04-27T08:20:39.99Z</time></trkpt><trkpt lat="39.91886934851369" lon="8.711593446509369"><ele>21.0</ele><time>2026-04-27T08:20:40.99Z</time></trkpt><trkpt lat="39.91883784871468" lon="8.711771394419083"><ele>21.0</ele><time>2026-04-27T08:20:41.989Z</time></trkpt><trkpt lat="39.91879696534577" lon="8.711938458402773"><ele>21.0</ele><time>2026-04-27T08:20:42.989Z</time></trkpt><trkpt lat="39.91876155680603" lon="8.712097928807975"><ele>21.0</ele><time>2026-04-27T08:20:43.989Z</time></trkpt><trkpt lat="39.91873009107906" lon="8.712231309077143"><ele>21.25</ele><time>2026-04-27T08:20:44.989Z</time></trkpt><trkpt lat="39.91870518813417" lon="8.712360662955415"><ele>21.5</ele><time>2026-04-27T08:20:45.989Z</time></trkpt><trkpt lat="39.918664901933624" lon="8.712487076212831"><ele>21.75</ele><time>2026-04-27T08:20:46.989Z</time></trkpt><trkpt lat="39.91860688385324" lon="8.712622644233068"><ele>22.0</ele><time>2026-04-27T08:20:47.989Z</time></trkpt><trkpt lat="39.918545978058255" lon="8.712769366277477"><ele>22.25</ele><time>2026-04-27T08:20:48.989Z</time></trkpt><trkpt lat="39.918490241506035" lon="8.712914870297384"><ele>22.5</ele><time>2026-04-27T08:20:49.989Z</time></trkpt><trkpt lat="39.91842881731333" lon="8.713062237463069"><ele>22.75</ele><time>2026-04-27T08:20:50.989Z</time></trkpt><trkpt lat="39.91836045723979" lon="8.713206737784756"><ele>23.0</ele><time>2026-04-27T08:20:51.989Z</time></trkpt><trkpt lat="39.9182910539345" lon="8.713346852692265"><ele>23.25</ele><time>2026-04-27T08:20:52.989Z</time></trkpt><trkpt lat="39.91821032917757" lon="8.713505608260814"><ele>23.5</ele><time>2026-04-27T08:20:53.989Z</time></trkpt><trkpt lat="39.91813270736554" lon="8.713662602954571"><ele>23.75</ele><time>2026-04-27T08:20:54.989Z</time></trkpt><trkpt lat="39.91805590735745" lon="8.71381851409229"><ele>24.0</ele><time>2026-04-27T08:20:55.989Z</time></trkpt><trkpt lat="39.917978882385235" lon="8.713979172967903"><ele>24.0</ele><time>2026-04-27T08:20:56.989Z</time></trkpt><trkpt lat="39.91790575390904" lon="8.714129019882323"><ele>24.0</ele><time>2026-04-27T08:20:57.989Z</time></trkpt><trkpt lat="39.917823952378505" lon="8.714289450485836"><ele>24.0</ele><time>2026-04-27T08:20:58.989Z</time></trkpt><trkpt lat="39.91775126143348" lon="8.714439148988307"><ele>24.0</ele><time>2026-04-27T08:20:59.989Z</time></trkpt><trkpt lat="39.917675002260935" lon="8.714596949972748"><ele>24.0</ele><time>2026-04-27T08:21:00.989Z</time></trkpt><trkpt lat="39.91759820515421" lon="8.714751135136597"><ele>24.0</ele><time>2026-04-27T08:21:01.989Z</time></trkpt><trkpt lat="39.917524873390455" lon="8.714904230496572"><ele>24.0</ele><time>2026-04-27T08:21:02.989Z</time></trkpt><trkpt lat="39.91744940288305" lon="8.715057738821976"><ele>24.0</ele><time>2026-04-27T08:21:03.989Z</time></trkpt><trkpt lat="39.917379215852776" lon="8.715200833200518"><ele>24.4</ele><time>2026-04-27T08:21:04.989Z</time></trkpt><trkpt lat="39.917319792840594" lon="8.715323310494082"><ele>24.799999999999997</ele><time>2026-04-27T08:21:05.989Z</time></trkpt><trkpt lat="39.91726340089023" lon="8.715448701173832"><ele>25.200000000000003</ele><time>2026-04-27T08:21:06.989Z</time></trkpt><trkpt lat="39.91721741612164" lon="8.71555173963393"><ele>25.6</ele><time>2026-04-27T08:21:07.989Z</time></trkpt><trkpt lat="39.91717835273145" lon="8.715644857195723"><ele>26.0</ele><time>2026-04-27T08:21:08.989Z</time></trkpt><trkpt lat="39.9171315228142" lon="8.715764387026633"><ele>26.0</ele><time>2026-04-27T08:21:10.989Z</time></trkpt><trkpt lat="39.91718576407878" lon="8.715855281441135"><ele>26.0</ele><time>2026-04-27T08:21:17.989Z</time></trkpt><trkpt lat="39.91727421639825" lon="8.715958752634872"><ele>26.0</ele><time>2026-04-27T08:21:19.989Z</time></trkpt><trkpt lat="39.91732429088197" lon="8.716061430448033"><ele>26.0</ele><time>2026-04-27T08:21:20.989Z</time></trkpt><trkpt lat="39.917412444631815" lon="8.716166374289264"><ele>26.0</ele><time>2026-04-27T08:21:21.989Z</time></trkpt><trkpt lat="39.917477479353956" lon="8.716301886514325"><ele>26.0</ele><time>2026-04-27T08:21:22.989Z</time></trkpt><trkpt lat="39.91756457562953" lon="8.71644800726475"><ele>26.0</ele><time>2026-04-27T08:21:23.989Z</time></trkpt><trkpt lat="39.91765817022108" lon="8.716606261251318"><ele>26.0</ele><time>2026-04-27T08:21:24.989Z</time></trkpt><trkpt lat="39.91774918719103" lon="8.716763626310792"><ele>26.0</ele><time>2026-04-27T08:21:25.99Z</time></trkpt><trkpt lat="39.91783764285906" lon="8.716926963612982"><ele>26.5</ele><time>2026-04-27T08:21:26.99Z</time></trkpt><trkpt lat="39.91792089801392" lon="8.717091759355847"><ele>27.0</ele><time>2026-04-27T08:21:27.99Z</time></trkpt><trkpt lat="39.917997116799" lon="8.717257732551737"><ele>27.5</ele><time>2026-04-27T08:21:28.99Z</time></trkpt><trkpt lat="39.918042774674895" lon="8.717416988942155"><ele>28.0</ele><time>2026-04-27T08:21:29.99Z</time></trkpt><trkpt lat="39.91811463218963" lon="8.717547348616478"><ele>28.0</ele><time>2026-04-27T08:21:30.99Z</time></trkpt><trkpt lat="39.918173214479275" lon="8.717676271535254"><ele>27.999999999999996</ele><time>2026-04-27T08:21:31.99Z</time></trkpt><trkpt lat="39.91822179329923" lon="8.717797491647435"><ele>27.999999999999996</ele><time>2026-04-27T08:21:32.99Z</time></trkpt><trkpt lat="39.91825989846322" lon="8.717913144269872"><ele>28.0</ele><time>2026-04-27T08:21:33.99Z</time></trkpt><trkpt lat="39.91828014476461" lon="8.718031456903882"><ele>28.0</ele><time>2026-04-27T08:21:34.99Z</time></trkpt><trkpt lat="39.91831410882447" lon="8.718138970892614"><ele>28.2</ele><time>2026-04-27T08:21:35.99Z</time></trkpt><trkpt lat="39.918371330469945" lon="8.718241264227693"><ele>28.4</ele><time>2026-04-27T08:21:36.99Z</time></trkpt><trkpt lat="39.9184525617257" lon="8.71833722400318"><ele>28.599999999999998</ele><time>2026-04-27T08:21:37.99Z</time></trkpt><trkpt lat="39.91853066355729" lon="8.718384535733861"><ele>28.799999999999997</ele><time>2026-04-27T08:21:38.99Z</time></trkpt><trkpt lat="39.918599723570175" lon="8.718413167014788"><ele>29.0</ele><time>2026-04-27T08:21:39.99Z</time></trkpt><trkpt lat="39.91868903658752" lon="8.718454685428386"><ele>29.2</ele><time>2026-04-27T08:21:40.99Z</time></trkpt><trkpt lat="39.91878011590743" lon="8.718497738159064"><ele>29.4</ele><time>2026-04-27T08:21:41.99Z</time></trkpt><trkpt lat="39.91887612718886" lon="8.718550993555864"><ele>29.6</ele><time>2026-04-27T08:21:42.99Z</time></trkpt><trkpt lat="39.91896369566117" lon="8.718622862696646"><ele>29.8</ele><time>2026-04-27T08:21:43.99Z</time></trkpt><trkpt lat="39.91905607292779" lon="8.718717625368928"><ele>30.0</ele><time>2026-04-27T08:21:44.99Z</time></trkpt><trkpt lat="39.91914880652622" lon="8.718833409197915"><ele>30.0</ele><time>2026-04-27T08:21:45.99Z</time></trkpt><trkpt lat="39.91923199060228" lon="8.718942095232803"><ele>30.0</ele><time>2026-04-27T08:21:46.99Z</time></trkpt><trkpt lat="39.919293308438434" lon="8.719009595697173"><ele>30.0</ele><time>2026-04-27T08:21:47.99Z</time></trkpt><trkpt lat="39.919395194475435" lon="8.719127890221545"><ele>30.0</ele><time>2026-04-27T08:21:48.99Z</time></trkpt><trkpt lat="39.91949747295496" lon="8.719248714012336"><ele>30.0</ele><time>2026-04-27T08:21:49.99Z</time></trkpt><trkpt lat="39.91959879618435" lon="8.719370365200298"><ele>30.0</ele><time>2026-04-27T08:21:50.99Z</time></trkpt><trkpt lat="39.9197013281333" lon="8.719496419798219"><ele>30.0</ele><time>2026-04-27T08:21:51.99Z</time></trkpt><trkpt lat="39.9197868626337" lon="8.719632758240614"><ele>30.0</ele><time>2026-04-27T08:21:52.99Z</time></trkpt><trkpt lat="39.919864182641746" lon="8.71975320967021"><ele>30.8</ele><time>2026-04-27T08:21:53.99Z</time></trkpt><trkpt lat="39.91992182894968" lon="8.719874510477384"><ele>31.6</ele><time>2026-04-27T08:21:54.99Z</time></trkpt><trkpt lat="39.91996063410965" lon="8.719997098306692"><ele>32.4</ele><time>2026-04-27T08:21:55.99Z</time></trkpt><trkpt lat="39.919992873040954" lon="8.720126973514049"><ele>33.2</ele><time>2026-04-27T08:21:56.99Z</time></trkpt><trkpt lat="39.920021365154305" lon="8.720266137225686"><ele>34.0</ele><time>2026-04-27T08:21:57.99Z</time></trkpt><trkpt lat="39.920049126601896" lon="8.720426261970367"><ele>34.25</ele><time>2026-04-27T08:21:58.99Z</time></trkpt><trkpt lat="39.920085164981835" lon="8.720607624369066"><ele>34.5</ele><time>2026-04-27T08:21:59.99Z</time></trkpt><trkpt lat="39.92009307124944" lon="8.720795797438798"><ele>34.75</ele><time>2026-04-27T08:22:00.99Z</time></trkpt><trkpt lat="39.920113485094134" lon="8.72098809756906"><ele>35.0</ele><time>2026-04-27T08:22:01.99Z</time></trkpt><trkpt lat="39.920134135960815" lon="8.72117755650398"><ele>35.0</ele><time>2026-04-27T08:22:02.99Z</time></trkpt><trkpt lat="39.92015293352788" lon="8.721364516255116"><ele>35.0</ele><time>2026-04-27T08:22:03.99Z</time></trkpt><trkpt lat="39.92018439344636" lon="8.72153658251137"><ele>35.0</ele><time>2026-04-27T08:22:04.99Z</time></trkpt><trkpt lat="39.9202055194025" lon="8.721686215421371"><ele>35.0</ele><time>2026-04-27T08:22:05.99Z</time></trkpt><trkpt lat="39.920235012833" lon="8.721821747300066"><ele>35.25</ele><time>2026-04-27T08:22:06.99Z</time></trkpt><trkpt lat="39.920299042254484" lon="8.72193488503223"><ele>35.5</ele><time>2026-04-27T08:22:07.99Z</time></trkpt><trkpt lat="39.9203655755002" lon="8.72207480939586"><ele>35.75</ele><time>2026-04-27T08:22:08.99Z</time></trkpt><trkpt lat="39.92043137005469" lon="8.722229512130623"><ele>36.0</ele><time>2026-04-27T08:22:09.99Z</time></trkpt><trkpt lat="39.92051685992165" lon="8.722412168531998"><ele>36.0</ele><time>2026-04-27T08:22:10.99Z</time></trkpt><trkpt lat="39.920581207179325" lon="8.722600672188928"><ele>36.0</ele><time>2026-04-27T08:22:11.99Z</time></trkpt><trkpt lat="39.92064936279295" lon="8.722783364585933"><ele>36.0</ele><time>2026-04-27T08:22:12.99Z</time></trkpt><trkpt lat="39.92072233954245" lon="8.72296826003377"><ele>36.0</ele><time>2026-04-27T08:22:13.99Z</time></trkpt><trkpt lat="39.920810689370974" lon="8.723157470485205"><ele>36.0</ele><time>2026-04-27T08:22:14.99Z</time></trkpt><trkpt lat="39.920903273926946" lon="8.723336840766512"><ele>36.0</ele><time>2026-04-27T08:22:15.99Z</time></trkpt><trkpt lat="39.920981439762656" lon="8.723504584123289"><ele>35.0</ele><time>2026-04-27T08:22:16.99Z</time></trkpt><trkpt lat="39.92104489151736" lon="8.723666519476026"><ele>34.0</ele><time>2026-04-27T08:22:17.99Z</time></trkpt><trkpt lat="39.921090155454216" lon="8.723819863103307"><ele>33.0</ele><time>2026-04-27T08:22:18.99Z</time></trkpt><trkpt lat="39.92113458009906" lon="8.723960434800862"><ele>32.0</ele><time>2026-04-27T08:22:19.99Z</time></trkpt><trkpt lat="39.921214532549016" lon="8.724042451923337"><ele>32.0</ele><time>2026-04-27T08:22:20.99Z</time></trkpt><trkpt lat="39.92130811157661" lon="8.724116991602306"><ele>32.0</ele><time>2026-04-27T08:22:21.99Z</time></trkpt><trkpt lat="39.92129743614033" lon="8.724355714270118"><ele>32.0</ele><time>2026-04-27T08:22:22.99Z</time></trkpt><trkpt lat="39.92136729337666" lon="8.724470093742026"><ele>32.0</ele><time>2026-04-27T08:22:23.99Z</time></trkpt><trkpt lat="39.92143300866063" lon="8.724582601034777"><ele>32.0</ele><time>2026-04-27T08:22:24.99Z</time></trkpt><trkpt lat="39.9214942618018" lon="8.724697294486708"><ele>32.0</ele><time>2026-04-27T08:22:25.99Z</time></trkpt><trkpt lat="39.92155299291838" lon="8.724830657916613"><ele>32.0</ele><time>2026-04-27T08:22:26.99Z</time></trkpt><trkpt lat="39.92161506126508" lon="8.724968850891711"><ele>32.0</ele><time>2026-04-27T08:22:27.99Z</time></trkpt><trkpt lat="39.92166502146245" lon="8.725107697010069"><ele>32.5</ele><time>2026-04-27T08:22:28.99Z</time></trkpt><trkpt lat="39.92171042216262" lon="8.725241176277095"><ele>33.0</ele><time>2026-04-27T08:22:29.99Z</time></trkpt><trkpt lat="39.92175477513896" lon="8.725373440528815"><ele>33.5</ele><time>2026-04-27T08:22:30.99Z</time></trkpt><trkpt lat="39.921803576846465" lon="8.725513273342298"><ele>34.0</ele><time>2026-04-27T08:22:31.99Z</time></trkpt><trkpt lat="39.92185040795071" lon="8.725646692029216"><ele>33.2</ele><time>2026-04-27T08:22:32.99Z</time></trkpt><trkpt lat="39.9218923767677" lon="8.725777099985986"><ele>32.4</ele><time>2026-04-27T08:22:33.99Z</time></trkpt><trkpt lat="39.921922470349294" lon="8.725914056184532"><ele>31.6</ele><time>2026-04-27T08:22:34.99Z</time></trkpt><trkpt lat="39.92194737105966" lon="8.726055122449937"><ele>30.8</ele><time>2026-04-27T08:22:35.989Z</time></trkpt><trkpt lat="39.92198019275512" lon="8.726204475581287"><ele>30.0</ele><time>2026-04-27T08:22:36.989Z</time></trkpt><trkpt lat="39.922022733888625" lon="8.726354908280184"><ele>30.0</ele><time>2026-04-27T08:22:37.989Z</time></trkpt><trkpt lat="39.922069537939876" lon="8.726493095793378"><ele>30.0</ele><time>2026-04-27T08:22:38.988Z</time></trkpt><trkpt lat="39.92212991105847" lon="8.726639017795675"><ele>30.0</ele><time>2026-04-27T08:22:39.989Z</time></trkpt><trkpt lat="39.922190747298195" lon="8.726788053731894"><ele>30.0</ele><time>2026-04-27T08:22:40.989Z</time></trkpt><trkpt lat="39.92224673868485" lon="8.726935143243512"><ele>30.25</ele><time>2026-04-27T08:22:41.989Z</time></trkpt><trkpt lat="39.922302637888905" lon="8.727082081691906"><ele>30.5</ele><time>2026-04-27T08:22:42.989Z</time></trkpt><trkpt lat="39.922358710256525" lon="8.727243181758382"><ele>30.75</ele><time>2026-04-27T08:22:43.989Z</time></trkpt><trkpt lat="39.92241480699415" lon="8.72740891460027"><ele>31.0</ele><time>2026-04-27T08:22:44.989Z</time></trkpt><trkpt lat="39.92247465934794" lon="8.727588059594927"><ele>31.25</ele><time>2026-04-27T08:22:45.989Z</time></trkpt><trkpt lat="39.92253039378419" lon="8.727765094271728"><ele>31.5</ele><time>2026-04-27T08:22:46.989Z</time></trkpt><trkpt lat="39.92258267465028" lon="8.727950932936416"><ele>31.75</ele><time>2026-04-27T08:22:47.989Z</time></trkpt><trkpt lat="39.92263493966011" lon="8.72813458140482"><ele>32.0</ele><time>2026-04-27T08:22:48.989Z</time></trkpt><trkpt lat="39.92268688207155" lon="8.728310943297341"><ele>31.0</ele><time>2026-04-27T08:22:49.989Z</time></trkpt><trkpt lat="39.92273851365083" lon="8.728490321034263"><ele>30.0</ele><time>2026-04-27T08:22:50.989Z</time></trkpt><trkpt lat="39.92278569675334" lon="8.72867093163304"><ele>29.0</ele><time>2026-04-27T08:22:51.989Z</time></trkpt><trkpt lat="39.922836678656516" lon="8.728844284742797"><ele>28.0</ele><time>2026-04-27T08:22:52.989Z</time></trkpt><trkpt lat="39.922888315439806" lon="8.729014516172294"><ele>28.0</ele><time>2026-04-27T08:22:53.989Z</time></trkpt><trkpt lat="39.92293843324193" lon="8.729187849576585"><ele>28.0</ele><time>2026-04-27T08:22:54.989Z</time></trkpt><trkpt lat="39.92299589339394" lon="8.729371324606463"><ele>28.0</ele><time>2026-04-27T08:22:55.989Z</time></trkpt><trkpt lat="39.923046929226906" lon="8.729545666145379"><ele>28.0</ele><time>2026-04-27T08:22:56.989Z</time></trkpt><trkpt lat="39.92309929534332" lon="8.729723597813418"><ele>28.0</ele><time>2026-04-27T08:22:57.989Z</time></trkpt><trkpt lat="39.923145023228784" lon="8.729874403717782"><ele>27.999999999999996</ele><time>2026-04-27T08:22:58.989Z</time></trkpt><trkpt lat="39.92318403790488" lon="8.729990999995707"><ele>27.999999999999996</ele><time>2026-04-27T08:22:59.989Z</time></trkpt><trkpt lat="39.92322418244899" lon="8.730113992245798"><ele>28.0</ele><time>2026-04-27T08:23:00.989Z</time></trkpt><trkpt lat="39.92326624827368" lon="8.730231811152866"><ele>28.0</ele><time>2026-04-27T08:23:01.989Z</time></trkpt><trkpt lat="39.923316265359176" lon="8.730334030004048"><ele>27.833333333333336</ele><time>2026-04-27T08:23:02.989Z</time></trkpt><trkpt lat="39.923371033934906" lon="8.730421345462618"><ele>27.666666666666668</ele><time>2026-04-27T08:23:03.989Z</time></trkpt><trkpt lat="39.92342089862323" lon="8.730488232628847"><ele>27.5</ele><time>2026-04-27T08:23:04.989Z</time></trkpt><trkpt lat="39.92346522013063" lon="8.730549617536116"><ele>27.333333333333336</ele><time>2026-04-27T08:23:05.989Z</time></trkpt><trkpt lat="39.92351638648802" lon="8.730670590753679"><ele>27.166666666666668</ele><time>2026-04-27T08:23:07.989Z</time></trkpt><trkpt lat="39.92350863296045" lon="8.730803288424816"><ele>27.0</ele><time>2026-04-27T08:23:09.989Z</time></trkpt><trkpt lat="39.9235597575564" lon="8.730901040771396"><ele>27.0</ele><time>2026-04-27T08:23:11.989Z</time></trkpt><trkpt lat="39.92363543715969" lon="8.730927624435138"><ele>27.0</ele><time>2026-04-27T08:23:12.989Z</time></trkpt><trkpt lat="39.92369961326775" lon="8.730958194440445"><ele>27.0</ele><time>2026-04-27T08:23:13.989Z</time></trkpt><trkpt lat="39.92376848187426" lon="8.731027376713048"><ele>27.0</ele><time>2026-04-27T08:23:15.989Z</time></trkpt><trkpt lat="39.9237537789766" lon="8.731160120192047"><ele>27.0</ele><time>2026-04-27T08:23:17.989Z</time></trkpt><trkpt lat="39.92373148114598" lon="8.73124496470812"><ele>27.0</ele><time>2026-04-27T08:23:18.989Z</time></trkpt><trkpt lat="39.923717759625625" lon="8.731353443616182"><ele>27.0</ele><time>2026-04-27T08:23:19.989Z</time></trkpt><trkpt lat="39.92370405725172" lon="8.731449175479995"><ele>27.0</ele><time>2026-04-27T08:23:20.989Z</time></trkpt><trkpt lat="39.923692542971224" lon="8.731552170610577"><ele>27.0</ele><time>2026-04-27T08:23:21.989Z</time></trkpt><trkpt lat="39.92367843332833" lon="8.73167258968225"><ele>27.0</ele><time>2026-04-27T08:23:22.989Z</time></trkpt><trkpt lat="39.92366070836455" lon="8.731777072266052"><ele>27.0</ele><time>2026-04-27T08:23:23.989Z</time></trkpt><trkpt lat="39.92364995313611" lon="8.731861494744154"><ele>27.0</ele><time>2026-04-27T08:23:24.989Z</time></trkpt><trkpt lat="39.92364585937241" lon="8.731947089367097"><ele>27.0</ele><time>2026-04-27T08:23:25.989Z</time></trkpt><trkpt lat="39.92363474649185" lon="8.73204369179828"><ele>27.0</ele><time>2026-04-27T08:23:26.989Z</time></trkpt><trkpt lat="39.923615552344586" lon="8.7321573749882"><ele>27.0</ele><time>2026-04-27T08:23:27.989Z</time></trkpt><trkpt lat="39.92360232885828" lon="8.732259292432351"><ele>27.0</ele><time>2026-04-27T08:23:28.989Z</time></trkpt><trkpt lat="39.92358926188065" lon="8.7323658748828"><ele>27.0</ele><time>2026-04-27T08:23:29.989Z</time></trkpt><trkpt lat="39.92357112462785" lon="8.732463514227012"><ele>27.0</ele><time>2026-04-27T08:23:30.989Z</time></trkpt><trkpt lat="39.923561702001315" lon="8.732554758154528"><ele>27.0</ele><time>2026-04-27T08:23:31.989Z</time></trkpt><trkpt lat="39.92354876020418" lon="8.732659367347766"><ele>27.0</ele><time>2026-04-27T08:23:32.989Z</time></trkpt><trkpt lat="39.92353448897623" lon="8.732773247562026"><ele>27.0</ele><time>2026-04-27T08:23:33.989Z</time></trkpt><trkpt lat="39.923518981104095" lon="8.732898168931854"><ele>27.0</ele><time>2026-04-27T08:23:34.989Z</time></trkpt><trkpt lat="39.92350465256684" lon="8.733010045547953"><ele>27.0</ele><time>2026-04-27T08:23:35.989Z</time></trkpt><trkpt lat="39.923490950386466" lon="8.733122349099503"><ele>27.0</ele><time>2026-04-27T08:23:36.989Z</time></trkpt><trkpt lat="39.923477948164646" lon="8.733215180273765"><ele>27.0</ele><time>2026-04-27T08:23:37.989Z</time></trkpt><trkpt lat="39.92346336866196" lon="8.733305638935786"><ele>27.0</ele><time>2026-04-27T08:23:38.989Z</time></trkpt><trkpt lat="39.92344938520081" lon="8.733407487563749"><ele>27.0</ele><time>2026-04-27T08:23:39.989Z</time></trkpt><trkpt lat="39.923434924801946" lon="8.733512606460799"><ele>27.0</ele><time>2026-04-27T08:23:40.989Z</time></trkpt><trkpt lat="39.923421466402026" lon="8.73361969430089"><ele>27.0</ele><time>2026-04-27T08:23:41.989Z</time></trkpt><trkpt lat="39.92340785800694" lon="8.733717213087038"><ele>27.0</ele><time>2026-04-27T08:23:42.989Z</time></trkpt><trkpt lat="39.923391582995755" lon="8.73379748635128"><ele>27.400000000000002</ele><time>2026-04-27T08:23:43.989Z</time></trkpt><trkpt lat="39.923374219741376" lon="8.73393883001387"><ele>27.800000000000004</ele><time>2026-04-27T08:23:45.989Z</time></trkpt><trkpt lat="39.92335638386539" lon="8.734034332914105"><ele>28.2</ele><time>2026-04-27T08:23:46.989Z</time></trkpt><trkpt lat="39.923340052555375" lon="8.734149938694133"><ele>28.6</ele><time>2026-04-27T08:23:47.989Z</time></trkpt><trkpt lat="39.92332634336724" lon="8.734265045380212"><ele>29.0</ele><time>2026-04-27T08:23:48.989Z</time></trkpt><trkpt lat="39.92331514244874" lon="8.734376585996786"><ele>28.999999999999996</ele><time>2026-04-27T08:23:49.989Z</time></trkpt><trkpt lat="39.923310188058906" lon="8.734474623518276"><ele>29.0</ele><time>2026-04-27T08:23:50.989Z</time></trkpt><trkpt lat="39.92331277067764" lon="8.734571496924127"><ele>29.0</ele><time>2026-04-27T08:23:51.989Z</time></trkpt><trkpt lat="39.92332610593964" lon="8.734675846752229"><ele>29.0</ele><time>2026-04-27T08:23:52.989Z</time></trkpt><trkpt lat="39.923342120747364" lon="8.734778183243957"><ele>28.999999999999996</ele><time>2026-04-27T08:23:53.989Z</time></trkpt><trkpt lat="39.92335157019952" lon="8.734895839912607"><ele>29.0</ele><time>2026-04-27T08:23:54.989Z</time></trkpt><trkpt lat="39.92335129851954" lon="8.735024988634974"><ele>29.0</ele><time>2026-04-27T08:23:55.989Z</time></trkpt><trkpt lat="39.92333479185987" lon="8.735170314676626"><ele>29.0</ele><time>2026-04-27T08:23:56.989Z</time></trkpt><trkpt lat="39.92331151219427" lon="8.73530618672245"><ele>29.0</ele><time>2026-04-27T08:23:57.989Z</time></trkpt><trkpt lat="39.92328490962645" lon="8.735438028186051"><ele>29.0</ele><time>2026-04-27T08:23:58.989Z</time></trkpt><trkpt lat="39.92324603952217" lon="8.735567496794369"><ele>29.0</ele><time>2026-04-27T08:23:59.989Z</time></trkpt><trkpt lat="39.923196061260654" lon="8.73569349420524"><ele>28.799999999999997</ele><time>2026-04-27T08:24:00.989Z</time></trkpt><trkpt lat="39.923141586852914" lon="8.735815334717977"><ele>28.599999999999998</ele><time>2026-04-27T08:24:01.989Z</time></trkpt><trkpt lat="39.92308886581475" lon="8.735936598663569"><ele>28.4</ele><time>2026-04-27T08:24:02.989Z</time></trkpt><trkpt lat="39.923038581807376" lon="8.736060554513783"><ele>28.2</ele><time>2026-04-27T08:24:03.989Z</time></trkpt><trkpt lat="39.923010909922496" lon="8.736199408958242"><ele>28.0</ele><time>2026-04-27T08:24:04.989Z</time></trkpt><trkpt lat="39.92297706183261" lon="8.736339814110934"><ele>28.0</ele><time>2026-04-27T08:24:05.989Z</time></trkpt><trkpt lat="39.922949644399296" lon="8.736485882179197"><ele>28.0</ele><time>2026-04-27T08:24:06.989Z</time></trkpt><trkpt lat="39.92292706851565" lon="8.736648019505951"><ele>28.0</ele><time>2026-04-27T08:24:07.989Z</time></trkpt><trkpt lat="39.92290364810346" lon="8.736809437091825"><ele>28.0</ele><time>2026-04-27T08:24:08.989Z</time></trkpt><trkpt lat="39.92287816039796" lon="8.736957632772972"><ele>27.799999999999997</ele><time>2026-04-27T08:24:09.989Z</time></trkpt><trkpt lat="39.92285786953966" lon="8.737117819507784"><ele>27.599999999999998</ele><time>2026-04-27T08:24:10.989Z</time></trkpt><trkpt lat="39.92283594518549" lon="8.737270435793134"><ele>27.400000000000002</ele><time>2026-04-27T08:24:11.989Z</time></trkpt><trkpt lat="39.922819379691035" lon="8.737405550189031"><ele>27.200000000000003</ele><time>2026-04-27T08:24:12.989Z</time></trkpt><trkpt lat="39.92280572860873" lon="8.737530173566537"><ele>27.0</ele><time>2026-04-27T08:24:13.989Z</time></trkpt><trkpt lat="39.92279194585967" lon="8.737665620378854"><ele>27.0</ele><time>2026-04-27T08:24:14.989Z</time></trkpt><trkpt lat="39.922790124876556" lon="8.737819017702293"><ele>27.0</ele><time>2026-04-27T08:24:15.989Z</time></trkpt><trkpt lat="39.92278806975377" lon="8.737985063423043"><ele>27.0</ele><time>2026-04-27T08:24:16.989Z</time></trkpt><trkpt lat="39.922788227840066" lon="8.738158331422827"><ele>27.0</ele><time>2026-04-27T08:24:17.989Z</time></trkpt><trkpt lat="39.92279661115842" lon="8.738320140679326"><ele>27.0</ele><time>2026-04-27T08:24:18.989Z</time></trkpt><trkpt lat="39.92279777303241" lon="8.738494787008486"><ele>27.0</ele><time>2026-04-27T08:24:19.989Z</time></trkpt><trkpt lat="39.922772362288256" lon="8.738664522073542"><ele>27.0</ele><time>2026-04-27T08:24:20.989Z</time></trkpt><trkpt lat="39.92277411105412" lon="8.73883072922798"><ele>27.0</ele><time>2026-04-27T08:24:21.989Z</time></trkpt><trkpt lat="39.922796115794405" lon="8.739004911588514"><ele>27.25</ele><time>2026-04-27T08:24:22.989Z</time></trkpt><trkpt lat="39.92281806587636" lon="8.7391850208958"><ele>27.5</ele><time>2026-04-27T08:24:23.989Z</time></trkpt><trkpt lat="39.92285146228376" lon="8.739363264516252"><ele>27.75</ele><time>2026-04-27T08:24:24.989Z</time></trkpt><trkpt lat="39.92286953515069" lon="8.73955205265025"><ele>28.0</ele><time>2026-04-27T08:24:25.989Z</time></trkpt><trkpt lat="39.92292053897096" lon="8.739750225764311"><ele>28.25</ele><time>2026-04-27T08:24:26.989Z</time></trkpt><trkpt lat="39.922959194640946" lon="8.739922718755846"><ele>28.5</ele><time>2026-04-27T08:24:27.989Z</time></trkpt><trkpt lat="39.92297628237022" lon="8.740089660349572"><ele>28.75</ele><time>2026-04-27T08:24:28.989Z</time></trkpt><trkpt lat="39.923004026840815" lon="8.74025225235734"><ele>29.0</ele><time>2026-04-27T08:24:29.989Z</time></trkpt><trkpt lat="39.92302965176241" lon="8.740421581330882"><ele>29.25</ele><time>2026-04-27T08:24:30.989Z</time></trkpt><trkpt lat="39.92304913804845" lon="8.740583440047093"><ele>29.5</ele><time>2026-04-27T08:24:31.989Z</time></trkpt><trkpt lat="39.92307522966334" lon="8.740733823187131"><ele>29.75</ele><time>2026-04-27T08:24:32.989Z</time></trkpt><trkpt lat="39.92307674057004" lon="8.740897571397637"><ele>30.0</ele><time>2026-04-27T08:24:33.989Z</time></trkpt><trkpt lat="39.923097137634734" lon="8.741036433638817"><ele>29.8</ele><time>2026-04-27T08:24:34.989Z</time></trkpt><trkpt lat="39.923123769993204" lon="8.7411567675486"><ele>29.6</ele><time>2026-04-27T08:24:35.989Z</time></trkpt><trkpt lat="39.92316405528978" lon="8.741261976499564"><ele>29.4</ele><time>2026-04-27T08:24:36.989Z</time></trkpt><trkpt lat="39.923228243337114" lon="8.741365121844298"><ele>29.2</ele><time>2026-04-27T08:24:37.989Z</time></trkpt><trkpt lat="39.92329585621825" lon="8.741470152839259"><ele>29.0</ele><time>2026-04-27T08:24:38.989Z</time></trkpt><trkpt lat="39.923371752128546" lon="8.741558810786472"><ele>28.6</ele><time>2026-04-27T08:24:39.989Z</time></trkpt><trkpt lat="39.92342605525509" lon="8.74166357953816"><ele>28.2</ele><time>2026-04-27T08:24:40.989Z</time></trkpt><trkpt lat="39.92347671897929" lon="8.741761927069666"><ele>27.800000000000004</ele><time>2026-04-27T08:24:41.989Z</time></trkpt><trkpt lat="39.923552569777215" lon="8.7418521141774"><ele>27.400000000000002</ele><time>2026-04-27T08:24:43.988Z</time></trkpt><trkpt lat="39.92362317600168" lon="8.742001102241876"><ele>27.0</ele><time>2026-04-27T08:24:44.989Z</time></trkpt><trkpt lat="39.923585216314734" lon="8.741919670178673"><ele>27.0</ele><time>2026-04-27T08:25:02.987Z</time></trkpt><trkpt lat="39.92354805747386" lon="8.74184339225827"><ele>27.0</ele><time>2026-04-27T08:25:05.987Z</time></trkpt><trkpt lat="39.92359714673522" lon="8.741945263064832"><ele>27.0</ele><time>2026-04-27T08:25:23.987Z</time></trkpt><trkpt lat="39.92358596719129" lon="8.742067952383058"><ele>27.0</ele><time>2026-04-27T08:25:26.987Z</time></trkpt><trkpt lat="39.92359787102873" lon="8.74215958386655"><ele>27.0</ele><time>2026-04-27T08:25:27.987Z</time></trkpt><trkpt lat="39.92358040089925" lon="8.7422499976688"><ele>27.0</ele><time>2026-04-27T08:25:28.987Z</time></trkpt><trkpt lat="39.92355907569653" lon="8.742348378400305"><ele>27.0</ele><time>2026-04-27T08:25:30.988Z</time></trkpt><trkpt lat="39.92354501403803" lon="8.74244135204179"><ele>27.0</ele><time>2026-04-27T08:25:38.988Z</time></trkpt><trkpt lat="39.923520851206696" lon="8.742584383338693"><ele>27.0</ele><time>2026-04-27T08:25:40.988Z</time></trkpt><trkpt lat="39.92350112983028" lon="8.742666575149512"><ele>27.0</ele><time>2026-04-27T08:25:41.988Z</time></trkpt><trkpt lat="39.92344350131207" lon="8.742741676406851"><ele>27.0</ele><time>2026-04-27T08:25:42.988Z</time></trkpt><trkpt lat="39.923384418712615" lon="8.742827555292738"><ele>27.0</ele><time>2026-04-27T08:25:43.988Z</time></trkpt><trkpt lat="39.923329107097956" lon="8.742940959007766"><ele>28.0</ele><time>2026-04-27T08:25:44.988Z</time></trkpt><trkpt lat="39.92328349408628" lon="8.743048024048548"><ele>29.0</ele><time>2026-04-27T08:25:45.988Z</time></trkpt><trkpt lat="39.92323707489296" lon="8.74318308371396"><ele>30.0</ele><time>2026-04-27T08:25:46.988Z</time></trkpt><trkpt lat="39.92322811599601" lon="8.743347264118682"><ele>31.0</ele><time>2026-04-27T08:25:47.988Z</time></trkpt><trkpt lat="39.92320339468758" lon="8.743505667795125"><ele>30.75</ele><time>2026-04-27T08:25:48.988Z</time></trkpt><trkpt lat="39.92318224379232" lon="8.74367813016346"><ele>30.5</ele><time>2026-04-27T08:25:49.988Z</time></trkpt><trkpt lat="39.92316258389099" lon="8.743850951419747"><ele>30.25</ele><time>2026-04-27T08:25:50.988Z</time></trkpt><trkpt lat="39.92313861870857" lon="8.744042768100432"><ele>30.0</ele><time>2026-04-27T08:25:51.988Z</time></trkpt><trkpt lat="39.92310163422183" lon="8.744231375994127"><ele>30.0</ele><time>2026-04-27T08:25:52.988Z</time></trkpt><trkpt lat="39.92306538013033" lon="8.744414212581137"><ele>30.0</ele><time>2026-04-27T08:25:53.988Z</time></trkpt><trkpt lat="39.923038907920905" lon="8.744597519342134"><ele>30.0</ele><time>2026-04-27T08:25:54.988Z</time></trkpt><trkpt lat="39.92300927430784" lon="8.74477704682942"><ele>30.0</ele><time>2026-04-27T08:25:55.988Z</time></trkpt><trkpt lat="39.92298820525447" lon="8.74496365505787"><ele>30.0</ele><time>2026-04-27T08:25:56.988Z</time></trkpt><trkpt lat="39.92295964893984" lon="8.745133599709025"><ele>30.0</ele><time>2026-04-27T08:25:57.988Z</time></trkpt><trkpt lat="39.92292361323331" lon="8.745279487121879"><ele>30.0</ele><time>2026-04-27T08:25:58.988Z</time></trkpt><trkpt lat="39.922863895769" lon="8.7453965742795"><ele>30.0</ele><time>2026-04-27T08:25:59.988Z</time></trkpt><trkpt lat="39.9228036710704" lon="8.745532291407324"><ele>29.75</ele><time>2026-04-27T08:26:00.988Z</time></trkpt><trkpt lat="39.922731902307355" lon="8.745682940174461"><ele>29.5</ele><time>2026-04-27T08:26:01.988Z</time></trkpt><trkpt lat="39.92265701216525" lon="8.745828676468962"><ele>29.25</ele><time>2026-04-27T08:26:02.988Z</time></trkpt><trkpt lat="39.922584551717456" lon="8.745962360088082"><ele>29.0</ele><time>2026-04-27T08:26:03.988Z</time></trkpt><trkpt lat="39.92251812994106" lon="8.746111822600357"><ele>29.75</ele><time>2026-04-27T08:26:04.988Z</time></trkpt><trkpt lat="39.9224311543325" lon="8.746256056717467"><ele>30.5</ele><time>2026-04-27T08:26:05.988Z</time></trkpt><trkpt lat="39.92234721083942" lon="8.74639645200881"><ele>31.25</ele><time>2026-04-27T08:26:06.988Z</time></trkpt><trkpt lat="39.922246564935655" lon="8.746509943256756"><ele>32.0</ele><time>2026-04-27T08:26:07.988Z</time></trkpt><trkpt lat="39.92216044164552" lon="8.746627272131411"><ele>32.0</ele><time>2026-04-27T08:26:08.988Z</time></trkpt><trkpt lat="39.922085812605545" lon="8.74675351637718"><ele>32.0</ele><time>2026-04-27T08:26:09.988Z</time></trkpt><trkpt lat="39.921995843173654" lon="8.746861393171281"><ele>32.0</ele><time>2026-04-27T08:26:10.988Z</time></trkpt><trkpt lat="39.921897670101615" lon="8.746986339350403"><ele>32.0</ele><time>2026-04-27T08:26:11.988Z</time></trkpt><trkpt lat="39.921795052846555" lon="8.747123565865676"><ele>32.0</ele><time>2026-04-27T08:26:12.988Z</time></trkpt><trkpt lat="39.92168884507054" lon="8.747265741366148"><ele>32.0</ele><time>2026-04-27T08:26:13.988Z</time></trkpt><trkpt lat="39.92158584657448" lon="8.747407418220003"><ele>32.0</ele><time>2026-04-27T08:26:14.988Z</time></trkpt><trkpt lat="39.921477045654214" lon="8.747517931572384"><ele>32.0</ele><time>2026-04-27T08:26:15.988Z</time></trkpt><trkpt lat="39.92137490285308" lon="8.747649829686376"><ele>31.75</ele><time>2026-04-27T08:26:16.988Z</time></trkpt><trkpt lat="39.92127378214828" lon="8.74778040797415"><ele>31.5</ele><time>2026-04-27T08:26:17.988Z</time></trkpt><trkpt lat="39.921179669966335" lon="8.747927590597286"><ele>31.25</ele><time>2026-04-27T08:26:18.988Z</time></trkpt><trkpt lat="39.92107045439825" lon="8.748044806148217"><ele>31.0</ele><time>2026-04-27T08:26:19.988Z</time></trkpt><trkpt lat="39.92096446402779" lon="8.748171895630717"><ele>32.0</ele><time>2026-04-27T08:26:20.988Z</time></trkpt><trkpt lat="39.920861022729454" lon="8.748283831169609"><ele>33.0</ele><time>2026-04-27T08:26:21.988Z</time></trkpt><trkpt lat="39.92077006314746" lon="8.7483666898843"><ele>34.0</ele><time>2026-04-27T08:26:22.988Z</time></trkpt><trkpt lat="39.92069016125125" lon="8.748452773812513"><ele>35.0</ele><time>2026-04-27T08:26:23.988Z</time></trkpt><trkpt lat="39.92060226977939" lon="8.748517431240955"><ele>34.6</ele><time>2026-04-27T08:26:24.988Z</time></trkpt><trkpt lat="39.92050779092081" lon="8.748576917193402"><ele>34.2</ele><time>2026-04-27T08:26:25.988Z</time></trkpt><trkpt lat="39.920420127967176" lon="8.748633138174176"><ele>33.8</ele><time>2026-04-27T08:26:26.988Z</time></trkpt><trkpt lat="39.92035108448969" lon="8.748667076872428"><ele>33.4</ele><time>2026-04-27T08:26:27.988Z</time></trkpt><trkpt lat="39.920241326606515" lon="8.748722226781792"><ele>33.0</ele><time>2026-04-27T08:26:29.988Z</time></trkpt><trkpt lat="39.920179225899126" lon="8.748758528234177"><ele>33.0</ele><time>2026-04-27T08:26:30.988Z</time></trkpt><trkpt lat="39.9201057420913" lon="8.748818609234732"><ele>33.0</ele><time>2026-04-27T08:26:31.988Z</time></trkpt><trkpt lat="39.9200264555104" lon="8.748886563670975"><ele>33.0</ele><time>2026-04-27T08:26:32.988Z</time></trkpt><trkpt lat="39.919931994531474" lon="8.748970573658697"><ele>33.0</ele><time>2026-04-27T08:26:33.988Z</time></trkpt><trkpt lat="39.91984018519386" lon="8.749059415161344"><ele>33.0</ele><time>2026-04-27T08:26:34.988Z</time></trkpt><trkpt lat="39.9197540067099" lon="8.749145805647043"><ele>33.199999999999996</ele><time>2026-04-27T08:26:35.988Z</time></trkpt><trkpt lat="39.919673970304224" lon="8.74922390697372"><ele>33.4</ele><time>2026-04-27T08:26:36.988Z</time></trkpt><trkpt lat="39.919583146612354" lon="8.749303989245588"><ele>33.599999999999994</ele><time>2026-04-27T08:26:37.988Z</time></trkpt><trkpt lat="39.9194909077157" lon="8.749375094182492"><ele>33.8</ele><time>2026-04-27T08:26:38.988Z</time></trkpt><trkpt lat="39.91940702811817" lon="8.749435245010305"><ele>34.0</ele><time>2026-04-27T08:26:39.988Z</time></trkpt><trkpt lat="39.91931699310604" lon="8.749497203163711"><ele>34.0</ele><time>2026-04-27T08:26:40.988Z</time></trkpt><trkpt lat="39.91923468700976" lon="8.749557273471423"><ele>34.0</ele><time>2026-04-27T08:26:41.988Z</time></trkpt><trkpt lat="39.919165123695514" lon="8.749614083766241"><ele>34.0</ele><time>2026-04-27T08:26:42.988Z</time></trkpt><trkpt lat="39.919111657317835" lon="8.749659544827853"><ele>34.0</ele><time>2026-04-27T08:26:43.988Z</time></trkpt><trkpt lat="39.91906001849194" lon="8.749709933973682"><ele>34.0</ele><time>2026-04-27T08:26:46.987Z</time></trkpt><trkpt lat="39.91899288860015" lon="8.749796354804783"><ele>34.0</ele><time>2026-04-27T08:26:50.987Z</time></trkpt><trkpt lat="39.918942477901034" lon="8.74985639564429"><ele>34.2</ele><time>2026-04-27T08:26:51.987Z</time></trkpt><trkpt lat="39.918883419959045" lon="8.749933638032134"><ele>34.4</ele><time>2026-04-27T08:26:52.987Z</time></trkpt><trkpt lat="39.91882230012998" lon="8.750021598156254"><ele>34.6</ele><time>2026-04-27T08:26:53.988Z</time></trkpt><trkpt lat="39.918746924805326" lon="8.750108609978122"><ele>34.8</ele><time>2026-04-27T08:26:54.988Z</time></trkpt><trkpt lat="39.9186481600935" lon="8.750201568671166"><ele>35.0</ele><time>2026-04-27T08:26:55.988Z</time></trkpt><trkpt lat="39.91853127290513" lon="8.75030918885957"><ele>35.25</ele><time>2026-04-27T08:26:56.988Z</time></trkpt><trkpt lat="39.91839816940698" lon="8.7504086066911"><ele>35.5</ele><time>2026-04-27T08:26:57.988Z</time></trkpt><trkpt lat="39.91828039268424" lon="8.750518077036682"><ele>35.75</ele><time>2026-04-27T08:26:58.987Z</time></trkpt><trkpt lat="39.91816458263467" lon="8.750625719749348"><ele>36.0</ele><time>2026-04-27T08:26:59.987Z</time></trkpt><trkpt lat="39.918049854307846" lon="8.750733099667121"><ele>36.0</ele><time>2026-04-27T08:27:00.987Z</time></trkpt><trkpt lat="39.91792820229353" lon="8.750844803211665"><ele>36.0</ele><time>2026-04-27T08:27:01.987Z</time></trkpt><trkpt lat="39.917803083040205" lon="8.750951465137968"><ele>36.0</ele><time>2026-04-27T08:27:02.987Z</time></trkpt><trkpt lat="39.9176800083703" lon="8.751049129535401"><ele>36.0</ele><time>2026-04-27T08:27:03.987Z</time></trkpt><trkpt lat="39.91755837182441" lon="8.751143774644737"><ele>36.25</ele><time>2026-04-27T08:27:04.987Z</time></trkpt><trkpt lat="39.91744079167199" lon="8.751235263428935"><ele>36.5</ele><time>2026-04-27T08:27:05.987Z</time></trkpt><trkpt lat="39.917323236151226" lon="8.75132566276845"><ele>36.75</ele><time>2026-04-27T08:27:06.987Z</time></trkpt><trkpt lat="39.917214336723994" lon="8.751420348627825"><ele>37.0</ele><time>2026-04-27T08:27:07.987Z</time></trkpt><trkpt lat="39.91710350974635" lon="8.75152695212096"><ele>37.0</ele><time>2026-04-27T08:27:08.987Z</time></trkpt><trkpt lat="39.917008043921115" lon="8.751629976425379"><ele>37.0</ele><time>2026-04-27T08:27:09.987Z</time></trkpt><trkpt lat="39.916919004864425" lon="8.751729108444701"><ele>37.0</ele><time>2026-04-27T08:27:10.987Z</time></trkpt><trkpt lat="39.91682848224433" lon="8.751849689780345"><ele>37.0</ele><time>2026-04-27T08:27:11.987Z</time></trkpt><trkpt lat="39.91672585155786" lon="8.751980427623463"><ele>38.0</ele><time>2026-04-27T08:27:12.987Z</time></trkpt><trkpt lat="39.91662498683143" lon="8.752121118741961"><ele>39.0</ele><time>2026-04-27T08:27:13.987Z</time></trkpt><trkpt lat="39.91651852275289" lon="8.752263444977322"><ele>40.0</ele><time>2026-04-27T08:27:14.987Z</time></trkpt><trkpt lat="39.91640235567137" lon="8.75241912921237"><ele>40.0</ele><time>2026-04-27T08:27:15.987Z</time></trkpt><trkpt lat="39.916289686998134" lon="8.75256495775578"><ele>40.0</ele><time>2026-04-27T08:27:16.987Z</time></trkpt><trkpt lat="39.916183143836086" lon="8.752706137788616"><ele>40.0</ele><time>2026-04-27T08:27:17.987Z</time></trkpt><trkpt lat="39.91608067026773" lon="8.752853430291696"><ele>40.333333333333336</ele><time>2026-04-27T08:27:18.987Z</time></trkpt><trkpt lat="39.91597232296501" lon="8.752997180650164"><ele>40.666666666666664</ele><time>2026-04-27T08:27:19.987Z</time></trkpt><trkpt lat="39.91585985683976" lon="8.753117903016266"><ele>41.0</ele><time>2026-04-27T08:27:20.987Z</time></trkpt><trkpt lat="39.91573973091256" lon="8.75324207333784"><ele>41.0</ele><time>2026-04-27T08:27:21.987Z</time></trkpt><trkpt lat="39.91561229617636" lon="8.753372900909433"><ele>41.0</ele><time>2026-04-27T08:27:22.987Z</time></trkpt><trkpt lat="39.9154909305973" lon="8.753505389461946"><ele>41.0</ele><time>2026-04-27T08:27:23.987Z</time></trkpt><trkpt lat="39.91537397333418" lon="8.753630576143257"><ele>41.33333333333333</ele><time>2026-04-27T08:27:24.987Z</time></trkpt><trkpt lat="39.9152560055465" lon="8.753761866471061"><ele>41.666666666666664</ele><time>2026-04-27T08:27:25.987Z</time></trkpt><trkpt lat="39.91514157158137" lon="8.753887484803178"><ele>42.0</ele><time>2026-04-27T08:27:26.987Z</time></trkpt><trkpt lat="39.915025803392005" lon="8.754001891616713"><ele>42.0</ele><time>2026-04-27T08:27:27.987Z</time></trkpt><trkpt lat="39.91490034824894" lon="8.754113088617432"><ele>42.0</ele><time>2026-04-27T08:27:28.987Z</time></trkpt><trkpt lat="39.91476997716365" lon="8.75422461379356"><ele>42.0</ele><time>2026-04-27T08:27:29.987Z</time></trkpt><trkpt lat="39.9146315046511" lon="8.754338242582172"><ele>41.666666666666664</ele><time>2026-04-27T08:27:30.987Z</time></trkpt><trkpt lat="39.914496133779835" lon="8.754443675451222"><ele>41.33333333333333</ele><time>2026-04-27T08:27:31.987Z</time></trkpt><trkpt lat="39.914352463518476" lon="8.75452805233667"><ele>41.0</ele><time>2026-04-27T08:27:32.987Z</time></trkpt><trkpt lat="39.9142183411574" lon="8.754639495836757"><ele>41.666666666666664</ele><time>2026-04-27T08:27:33.987Z</time></trkpt><trkpt lat="39.91408334468311" lon="8.75475683227452"><ele>42.333333333333336</ele><time>2026-04-27T08:27:34.987Z</time></trkpt><trkpt lat="39.91394956335036" lon="8.754868753036737"><ele>43.0</ele><time>2026-04-27T08:27:35.987Z</time></trkpt><trkpt lat="39.91381728921387" lon="8.754982692256513"><ele>43.0</ele><time>2026-04-27T08:27:36.987Z</time></trkpt><trkpt lat="39.913687979430144" lon="8.75511485407359"><ele>43.0</ele><time>2026-04-27T08:27:37.987Z</time></trkpt><trkpt lat="39.91357072877402" lon="8.755247186231008"><ele>43.0</ele><time>2026-04-27T08:27:38.987Z</time></trkpt><trkpt lat="39.91345492653166" lon="8.755377883817232"><ele>43.333333333333336</ele><time>2026-04-27T08:27:39.987Z</time></trkpt><trkpt lat="39.913342283098864" lon="8.755508843153594"><ele>43.666666666666664</ele><time>2026-04-27T08:27:40.987Z</time></trkpt><trkpt lat="39.91322595839347" lon="8.755652335426884"><ele>44.0</ele><time>2026-04-27T08:27:41.987Z</time></trkpt><trkpt lat="39.91311265734683" lon="8.755796833485872"><ele>44.0</ele><time>2026-04-27T08:27:42.987Z</time></trkpt><trkpt lat="39.91302510970784" lon="8.755928524648589"><ele>44.0</ele><time>2026-04-27T08:27:43.987Z</time></trkpt><trkpt lat="39.91295021884203" lon="8.756030635481707"><ele>44.0</ele><time>2026-04-27T08:27:44.987Z</time></trkpt><trkpt lat="39.91287286430013" lon="8.756147250325157"><ele>44.0</ele><time>2026-04-27T08:27:47.987Z</time></trkpt><trkpt lat="39.91281533577837" lon="8.756292486367157"><ele>44.0</ele><time>2026-04-27T08:27:49.987Z</time></trkpt><trkpt lat="39.91276882185343" lon="8.756368060327572"><ele>44.0</ele><time>2026-04-27T08:27:50.987Z</time></trkpt><trkpt lat="39.9127104515314" lon="8.756447011343095"><ele>44.0</ele><time>2026-04-27T08:27:51.987Z</time></trkpt><trkpt lat="39.91264030354634" lon="8.756532644059087"><ele>44.0</ele><time>2026-04-27T08:27:52.987Z</time></trkpt><trkpt lat="39.91256928838843" lon="8.756626870107"><ele>44.0</ele><time>2026-04-27T08:27:53.987Z</time></trkpt><trkpt lat="39.91248736803991" lon="8.756733585015155"><ele>44.25</ele><time>2026-04-27T08:27:54.987Z</time></trkpt><trkpt lat="39.91240704049104" lon="8.756836794721545"><ele>44.5</ele><time>2026-04-27T08:27:55.987Z</time></trkpt><trkpt lat="39.91231598552507" lon="8.756935840932115"><ele>44.75</ele><time>2026-04-27T08:27:56.987Z</time></trkpt><trkpt lat="39.91223000138568" lon="8.7570261143824"><ele>45.0</ele><time>2026-04-27T08:27:57.987Z</time></trkpt><trkpt lat="39.91213725614019" lon="8.757114767997193"><ele>45.0</ele><time>2026-04-27T08:27:58.987Z</time></trkpt><trkpt lat="39.912044614972736" lon="8.757183816947988"><ele>45.0</ele><time>2026-04-27T08:27:59.987Z</time></trkpt><trkpt lat="39.91194320589914" lon="8.757263695886968"><ele>45.0</ele><time>2026-04-27T08:28:00.987Z</time></trkpt><trkpt lat="39.911833022642654" lon="8.757317224572136"><ele>45.0</ele><time>2026-04-27T08:28:01.987Z</time></trkpt><trkpt lat="39.91174336688063" lon="8.757427042247723"><ele>45.75</ele><time>2026-04-27T08:28:02.987Z</time></trkpt><trkpt lat="39.9116647359267" lon="8.757517810894292"><ele>46.5</ele><time>2026-04-27T08:28:03.987Z</time></trkpt><trkpt lat="39.91158983885597" lon="8.757627543459165"><ele>47.25</ele><time>2026-04-27T08:28:04.987Z</time></trkpt><trkpt lat="39.9115163847268" lon="8.757753796880909"><ele>48.0</ele><time>2026-04-27T08:28:05.987Z</time></trkpt><trkpt lat="39.91143284327874" lon="8.757879698631674"><ele>48.0</ele><time>2026-04-27T08:28:06.987Z</time></trkpt><trkpt lat="39.911359278724014" lon="8.758013901130768"><ele>48.0</ele><time>2026-04-27T08:28:07.987Z</time></trkpt><trkpt lat="39.91127109993336" lon="8.758176285101182"><ele>48.0</ele><time>2026-04-27T08:28:08.987Z</time></trkpt><trkpt lat="39.91117335771245" lon="8.75830095935174"><ele>48.0</ele><time>2026-04-27T08:28:09.987Z</time></trkpt><trkpt lat="39.91107537426569" lon="8.75842284130948"><ele>48.0</ele><time>2026-04-27T08:28:10.987Z</time></trkpt><trkpt lat="39.910969997836155" lon="8.758540638496786"><ele>48.0</ele><time>2026-04-27T08:28:11.987Z</time></trkpt><trkpt lat="39.91085339842466" lon="8.758646740738138"><ele>48.0</ele><time>2026-04-27T08:28:12.987Z</time></trkpt><trkpt lat="39.910736955214894" lon="8.758739574745277"><ele>48.0</ele><time>2026-04-27T08:28:13.987Z</time></trkpt><trkpt lat="39.910623840477385" lon="8.758845895584068"><ele>48.0</ele><time>2026-04-27T08:28:14.987Z</time></trkpt><trkpt lat="39.91051375459754" lon="8.758966432812594"><ele>48.0</ele><time>2026-04-27T08:28:15.987Z</time></trkpt><trkpt lat="39.91041559118962" lon="8.759109645650401"><ele>48.0</ele><time>2026-04-27T08:28:16.987Z</time></trkpt><trkpt lat="39.910311471899945" lon="8.759247290630077"><ele>48.0</ele><time>2026-04-27T08:28:17.987Z</time></trkpt><trkpt lat="39.91020775168717" lon="8.759384064690748"><ele>48.25</ele><time>2026-04-27T08:28:18.987Z</time></trkpt><trkpt lat="39.91010251633636" lon="8.759510523641394"><ele>48.5</ele><time>2026-04-27T08:28:19.987Z</time></trkpt><trkpt lat="39.90999373822996" lon="8.759632162983765"><ele>48.75</ele><time>2026-04-27T08:28:20.987Z</time></trkpt><trkpt lat="39.90990052599714" lon="8.759780567690669"><ele>49.0</ele><time>2026-04-27T08:28:21.987Z</time></trkpt><trkpt lat="39.909814060840716" lon="8.759927398855991"><ele>49.0</ele><time>2026-04-27T08:28:22.987Z</time></trkpt><trkpt lat="39.90973191273664" lon="8.760054075905323"><ele>49.0</ele><time>2026-04-27T08:28:23.987Z</time></trkpt><trkpt lat="39.90964674335068" lon="8.760137420153919"><ele>49.0</ele><time>2026-04-27T08:28:24.987Z</time></trkpt><trkpt lat="39.909574521922615" lon="8.760210324196303"><ele>49.0</ele><time>2026-04-27T08:28:25.987Z</time></trkpt><trkpt lat="39.90951447018401" lon="8.760278035719075"><ele>49.0</ele><time>2026-04-27T08:28:26.987Z</time></trkpt><trkpt lat="39.90941919631428" lon="8.760378752640591"><ele>48.6</ele><time>2026-04-27T08:28:28.987Z</time></trkpt><trkpt lat="39.90935949662859" lon="8.760455732180006"><ele>48.2</ele><time>2026-04-27T08:28:29.987Z</time></trkpt><trkpt lat="39.90929378827122" lon="8.760548774343588"><ele>47.800000000000004</ele><time>2026-04-27T08:28:30.987Z</time></trkpt><trkpt lat="39.90923127466196" lon="8.76064599573558"><ele>47.400000000000006</ele><time>2026-04-27T08:28:31.987Z</time></trkpt><trkpt lat="39.909173952732836" lon="8.76075995866118"><ele>47.0</ele><time>2026-04-27T08:28:32.987Z</time></trkpt><trkpt lat="39.90912385011041" lon="8.760885964851427"><ele>47.0</ele><time>2026-04-27T08:28:33.987Z</time></trkpt><trkpt lat="39.90907982636863" lon="8.761011706825885"><ele>47.0</ele><time>2026-04-27T08:28:34.987Z</time></trkpt><trkpt lat="39.9090329830107" lon="8.761137662043287"><ele>47.0</ele><time>2026-04-27T08:28:35.987Z</time></trkpt><trkpt lat="39.90897757185051" lon="8.761254705193744"><ele>47.0</ele><time>2026-04-27T08:28:36.987Z</time></trkpt><trkpt lat="39.90892150275863" lon="8.76136886912483"><ele>47.0</ele><time>2026-04-27T08:28:37.987Z</time></trkpt><trkpt lat="39.90885732134172" lon="8.761480910716884"><ele>46.6</ele><time>2026-04-27T08:28:38.987Z</time></trkpt><trkpt lat="39.90878153412603" lon="8.761598165804218"><ele>46.2</ele><time>2026-04-27T08:28:39.987Z</time></trkpt><trkpt lat="39.90871272612244" lon="8.761702919674955"><ele>45.8</ele><time>2026-04-27T08:28:40.987Z</time></trkpt><trkpt lat="39.90864466318478" lon="8.761804090044814"><ele>45.4</ele><time>2026-04-27T08:28:41.987Z</time></trkpt><trkpt lat="39.90856994574952" lon="8.761908611696484"><ele>45.0</ele><time>2026-04-27T08:28:42.987Z</time></trkpt><trkpt lat="39.90849146185419" lon="8.762017057494798"><ele>45.25</ele><time>2026-04-27T08:28:43.987Z</time></trkpt><trkpt lat="39.90839767814247" lon="8.762138265764854"><ele>45.5</ele><time>2026-04-27T08:28:44.987Z</time></trkpt><trkpt lat="39.908298188080245" lon="8.762286194541389"><ele>45.75</ele><time>2026-04-27T08:28:45.987Z</time></trkpt><trkpt lat="39.90822918837617" lon="8.762425497496467"><ele>46.0</ele><time>2026-04-27T08:28:46.987Z</time></trkpt><trkpt lat="39.908158760742204" lon="8.762542135302855"><ele>46.0</ele><time>2026-04-27T08:28:47.987Z</time></trkpt><trkpt lat="39.90809584502887" lon="8.762647169216018"><ele>46.0</ele><time>2026-04-27T08:28:48.987Z</time></trkpt><trkpt lat="39.90802631703616" lon="8.762704478906125"><ele>46.0</ele><time>2026-04-27T08:28:49.987Z</time></trkpt><trkpt lat="39.90795593909261" lon="8.76275857143813"><ele>46.0</ele><time>2026-04-27T08:28:50.987Z</time></trkpt><trkpt lat="39.90788370159886" lon="8.762798858881272"><ele>46.0</ele><time>2026-04-27T08:28:51.987Z</time></trkpt><trkpt lat="39.907799518645525" lon="8.762810957019113"><ele>46.0</ele><time>2026-04-27T08:28:52.986Z</time></trkpt><trkpt lat="39.907710280966626" lon="8.762812104602187"><ele>45.833333333333336</ele><time>2026-04-27T08:28:53.987Z</time></trkpt><trkpt lat="39.90762974228951" lon="8.762845604596073"><ele>45.66666666666667</ele><time>2026-04-27T08:28:54.987Z</time></trkpt><trkpt lat="39.9075583827348" lon="8.762872999935865"><ele>45.5</ele><time>2026-04-27T08:28:55.987Z</time></trkpt><trkpt lat="39.907504817381565" lon="8.762918062547737"><ele>45.333333333333336</ele><time>2026-04-27T08:28:56.986Z</time></trkpt><trkpt lat="39.90744872302969" lon="8.762992618107527"><ele>45.166666666666664</ele><time>2026-04-27T08:28:57.986Z</time></trkpt><trkpt lat="39.90739086788802" lon="8.763081134853115"><ele>45.0</ele><time>2026-04-27T08:28:58.986Z</time></trkpt><trkpt lat="39.90736807623343" lon="8.763208878171628"><ele>45.0</ele><time>2026-04-27T08:28:59.986Z</time></trkpt><trkpt lat="39.907346935259746" lon="8.763324674933738"><ele>45.0</ele><time>2026-04-27T08:29:00.986Z</time></trkpt><trkpt lat="39.90731270800503" lon="8.76346068766792"><ele>45.0</ele><time>2026-04-27T08:29:01.986Z</time></trkpt><trkpt lat="39.90732705216743" lon="8.763579427274957"><ele>45.0</ele><time>2026-04-27T08:29:02.987Z</time></trkpt><trkpt lat="39.907338142123194" lon="8.763670774832303"><ele>45.0</ele><time>2026-04-27T08:29:03.987Z</time></trkpt><trkpt lat="39.90740557344378" lon="8.763780924138102"><ele>45.333333333333336</ele><time>2026-04-27T08:29:05.987Z</time></trkpt><trkpt lat="39.90749621665294" lon="8.763845764233375"><ele>45.666666666666664</ele><time>2026-04-27T08:29:07.987Z</time></trkpt><trkpt lat="39.90759407200445" lon="8.7639063953214"><ele>46.0</ele><time>2026-04-27T08:29:09.987Z</time></trkpt><trkpt lat="39.90766844487533" lon="8.763941280282838"><ele>46.33333333333333</ele><time>2026-04-27T08:29:10.987Z</time></trkpt><trkpt lat="39.90773261607879" lon="8.763974169651535"><ele>46.666666666666664</ele><time>2026-04-27T08:29:11.987Z</time></trkpt><trkpt lat="39.907783933921145" lon="8.764025361309237"><ele>47.0</ele><time>2026-04-27T08:29:12.987Z</time></trkpt><trkpt lat="39.907856949548346" lon="8.76406721008058"><ele>47.5</ele><time>2026-04-27T08:29:13.987Z</time></trkpt><trkpt lat="39.907988730458115" lon="8.763978314168327"><ele>48.0</ele><time>2026-04-27T08:29:14.987Z</time></trkpt><trkpt lat="39.908125290016244" lon="8.76394792130292"><ele>48.5</ele><time>2026-04-27T08:29:15.987Z</time></trkpt><trkpt lat="39.9082585366707" lon="8.763918859539716"><ele>49.0</ele><time>2026-04-27T08:29:16.987Z</time></trkpt><trkpt lat="39.90840588879218" lon="8.763876027435545"><ele>49.25</ele><time>2026-04-27T08:29:17.987Z</time></trkpt><trkpt lat="39.90855404576371" lon="8.76384744399122"><ele>49.5</ele><time>2026-04-27T08:29:18.987Z</time></trkpt><trkpt lat="39.90869628565146" lon="8.763834129160127"><ele>49.75</ele><time>2026-04-27T08:29:19.987Z</time></trkpt><trkpt lat="39.908821932319505" lon="8.763872505352372"><ele>50.0</ele><time>2026-04-27T08:29:20.987Z</time></trkpt><trkpt lat="39.90894574578362" lon="8.763884341054373"><ele>50.0</ele><time>2026-04-27T08:29:21.987Z</time></trkpt><trkpt lat="39.90906416462583" lon="8.763884387448401"><ele>50.0</ele><time>2026-04-27T08:29:22.987Z</time></trkpt><trkpt lat="39.90917792986881" lon="8.763841037493469"><ele>50.0</ele><time>2026-04-27T08:29:23.987Z</time></trkpt><trkpt lat="39.90930490108352" lon="8.763815127064248"><ele>50.0</ele><time>2026-04-27T08:29:24.987Z</time></trkpt><trkpt lat="39.90943997214715" lon="8.763790040743743"><ele>49.5</ele><time>2026-04-27T08:29:25.987Z</time></trkpt><trkpt lat="39.90958092711863" lon="8.763768570765007"><ele>49.0</ele><time>2026-04-27T08:29:26.987Z</time></trkpt><trkpt lat="39.90971932216857" lon="8.763764788405233"><ele>48.5</ele><time>2026-04-27T08:29:27.987Z</time></trkpt><trkpt lat="39.90984190143335" lon="8.763804009228647"><ele>48.0</ele><time>2026-04-27T08:29:28.987Z</time></trkpt><trkpt lat="39.909965992328154" lon="8.763825085082729"><ele>47.25</ele><time>2026-04-27T08:29:29.987Z</time></trkpt><trkpt lat="39.910090634131095" lon="8.763872811560766"><ele>46.5</ele><time>2026-04-27T08:29:30.987Z</time></trkpt><trkpt lat="39.910228723829334" lon="8.763929845942812"><ele>45.75</ele><time>2026-04-27T08:29:31.987Z</time></trkpt><trkpt lat="39.91037682986899" lon="8.76398663568641"><ele>45.0</ele><time>2026-04-27T08:29:32.987Z</time></trkpt><trkpt lat="39.91053665288474" lon="8.76401713030765"><ele>45.0</ele><time>2026-04-27T08:29:33.987Z</time></trkpt><trkpt lat="39.9106891186656" lon="8.764060881716834"><ele>45.0</ele><time>2026-04-27T08:29:34.987Z</time></trkpt><trkpt lat="39.91084508366045" lon="8.764088570048068"><ele>45.0</ele><time>2026-04-27T08:29:35.987Z</time></trkpt><trkpt lat="39.911004631065936" lon="8.76411547794955"><ele>45.0</ele><time>2026-04-27T08:29:36.987Z</time></trkpt><trkpt lat="39.91116405841014" lon="8.7641408892478"><ele>45.0</ele><time>2026-04-27T08:29:37.987Z</time></trkpt><trkpt lat="39.91133034065249" lon="8.764160876418051"><ele>45.0</ele><time>2026-04-27T08:29:38.987Z</time></trkpt><trkpt lat="39.91149735088437" lon="8.76419991563859"><ele>45.0</ele><time>2026-04-27T08:29:39.987Z</time></trkpt><trkpt lat="39.91166571665545" lon="8.764218042969143"><ele>45.0</ele><time>2026-04-27T08:29:40.987Z</time></trkpt><trkpt lat="39.91182921179865" lon="8.764232481325198"><ele>45.0</ele><time>2026-04-27T08:29:41.987Z</time></trkpt><trkpt lat="39.91199388302799" lon="8.764243826454845"><ele>45.0</ele><time>2026-04-27T08:29:42.987Z</time></trkpt><trkpt lat="39.91213676352911" lon="8.764249524934426"><ele>45.0</ele><time>2026-04-27T08:29:43.987Z</time></trkpt><trkpt lat="39.912275824463336" lon="8.764220068263075"><ele>45.0</ele><time>2026-04-27T08:29:44.987Z</time></trkpt><trkpt lat="39.91242072924419" lon="8.764204063487586"><ele>45.0</ele><time>2026-04-27T08:29:45.987Z</time></trkpt><trkpt lat="39.912571899038454" lon="8.764181531753126"><ele>45.25</ele><time>2026-04-27T08:29:46.987Z</time></trkpt><trkpt lat="39.91272709867173" lon="8.764158782281195"><ele>45.5</ele><time>2026-04-27T08:29:47.987Z</time></trkpt><trkpt lat="39.91287232539978" lon="8.764130745369823"><ele>45.75</ele><time>2026-04-27T08:29:48.987Z</time></trkpt><trkpt lat="39.91300683050532" lon="8.764100096671472"><ele>46.0</ele><time>2026-04-27T08:29:49.987Z</time></trkpt><trkpt lat="39.91313914764459" lon="8.76406224680605"><ele>46.0</ele><time>2026-04-27T08:29:50.987Z</time></trkpt><trkpt lat="39.913273145173775" lon="8.764023346996398"><ele>46.0</ele><time>2026-04-27T08:29:51.987Z</time></trkpt><trkpt lat="39.91339503866707" lon="8.76398067710658"><ele>46.0</ele><time>2026-04-27T08:29:52.987Z</time></trkpt><trkpt lat="39.91350898732598" lon="8.76397198802512"><ele>46.0</ele><time>2026-04-27T08:29:53.987Z</time></trkpt><trkpt lat="39.91361575848573" lon="8.763969938515848"><ele>46.4</ele><time>2026-04-27T08:29:54.987Z</time></trkpt><trkpt lat="39.91371968623455" lon="8.763956661027555"><ele>46.8</ele><time>2026-04-27T08:29:55.987Z</time></trkpt><trkpt lat="39.91381637134872" lon="8.76393925527724"><ele>47.199999999999996</ele><time>2026-04-27T08:29:56.987Z</time></trkpt><trkpt lat="39.91390019096201" lon="8.763901759973479"><ele>47.599999999999994</ele><time>2026-04-27T08:29:57.987Z</time></trkpt><trkpt lat="39.91398213591588" lon="8.763886614056883"><ele>48.0</ele><time>2026-04-27T08:29:58.987Z</time></trkpt><trkpt lat="39.91405911498716" lon="8.763875679375392"><ele>48.0</ele><time>2026-04-27T08:29:59.987Z</time></trkpt><trkpt lat="39.91413164040706" lon="8.763858382154833"><ele>48.0</ele><time>2026-04-27T08:30:00.987Z</time></trkpt><trkpt lat="39.914195185035354" lon="8.76384613243372"><ele>48.0</ele><time>2026-04-27T08:30:01.987Z</time></trkpt><trkpt lat="39.91430317752847" lon="8.76379905404827"><ele>48.0</ele><time>2026-04-27T08:30:03.987Z</time></trkpt><trkpt lat="39.91436247183263" lon="8.76376485264684"><ele>48.0</ele><time>2026-04-27T08:30:07.987Z</time></trkpt><trkpt lat="39.9142930274958" lon="8.763791536976345"><ele>48.0</ele><time>2026-04-27T08:30:10.987Z</time></trkpt><trkpt lat="39.91422954787541" lon="8.763812170802648"><ele>48.0</ele><time>2026-04-27T08:30:11.987Z</time></trkpt><trkpt lat="39.91419098877524" lon="8.764051778166673"><ele>48.0</ele><time>2026-04-27T08:30:12.987Z</time></trkpt><trkpt lat="39.91411241680454" lon="8.764075416754327"><ele>48.0</ele><time>2026-04-27T08:30:13.987Z</time></trkpt><trkpt lat="39.91402313690847" lon="8.76410234624806"><ele>48.0</ele><time>2026-04-27T08:30:14.987Z</time></trkpt><trkpt lat="39.9139485870101" lon="8.764124827346993"><ele>48.0</ele><time>2026-04-27T08:30:15.987Z</time></trkpt><trkpt lat="39.91385905318174" lon="8.764102758151656"><ele>48.0</ele><time>2026-04-27T08:30:17.987Z</time></trkpt><trkpt lat="39.913790067198754" lon="8.76414545895228"><ele>48.0</ele><time>2026-04-27T08:30:19.987Z</time></trkpt><trkpt lat="39.91374488908562" lon="8.764255132287522"><ele>48.0</ele><time>2026-04-27T08:30:25.987Z</time></trkpt><trkpt lat="39.91370966652542" lon="8.764391775283356"><ele>48.0</ele><time>2026-04-27T08:30:28.987Z</time></trkpt><trkpt lat="39.91370690916475" lon="8.764475003180891"><ele>48.0</ele><time>2026-04-27T08:30:29.987Z</time></trkpt><trkpt lat="39.91368636641631" lon="8.764578015961188"><ele>48.0</ele><time>2026-04-27T08:30:30.987Z</time></trkpt><trkpt lat="39.913669773680695" lon="8.76466122007717"><ele>48.4</ele><time>2026-04-27T08:30:31.987Z</time></trkpt><trkpt lat="39.9136489177779" lon="8.764765803074567"><ele>48.8</ele><time>2026-04-27T08:30:32.987Z</time></trkpt><trkpt lat="39.9136539403977" lon="8.764898525729635"><ele>49.2</ele><time>2026-04-27T08:30:33.987Z</time></trkpt><trkpt lat="39.91367049577874" lon="8.765029351249241"><ele>49.6</ele><time>2026-04-27T08:30:34.987Z</time></trkpt><trkpt lat="39.913688717777625" lon="8.765153350806875"><ele>50.0</ele><time>2026-04-27T08:30:35.987Z</time></trkpt><trkpt lat="39.91371289776793" lon="8.765283139883053"><ele>50.2</ele><time>2026-04-27T08:30:36.987Z</time></trkpt><trkpt lat="39.913743816237485" lon="8.765411889384922"><ele>50.4</ele><time>2026-04-27T08:30:37.987Z</time></trkpt><trkpt lat="39.91378064822084" lon="8.765552948604972"><ele>50.599999999999994</ele><time>2026-04-27T08:30:38.987Z</time></trkpt><trkpt lat="39.91381757160876" lon="8.765685545102972"><ele>50.8</ele><time>2026-04-27T08:30:39.987Z</time></trkpt><trkpt lat="39.91384008869158" lon="8.765765429826757"><ele>51.0</ele><time>2026-04-27T08:30:40.987Z</time></trkpt><trkpt lat="39.913950625470804" lon="8.766131238437048"><ele>51.666666666666664</ele><time>2026-04-27T08:30:42.987Z</time></trkpt><trkpt lat="39.91398183897074" lon="8.766237578948019"><ele>52.33333333333333</ele><time>2026-04-27T08:30:43.987Z</time></trkpt><trkpt lat="39.91400626286283" lon="8.766320078436326"><ele>53.0</ele><time>2026-04-27T08:30:44.987Z</time></trkpt><trkpt lat="39.91405704508395" lon="8.766445361220699"><ele>53.666666666666664</ele><time>2026-04-27T08:30:46.987Z</time></trkpt><trkpt lat="39.91410170246922" lon="8.766530428452823"><ele>54.33333333333333</ele><time>2026-04-27T08:30:47.987Z</time></trkpt><trkpt lat="39.91415082358094" lon="8.766623277190737"><ele>55.0</ele><time>2026-04-27T08:30:48.987Z</time></trkpt><trkpt lat="39.91420629517318" lon="8.76671995294443"><ele>56.0</ele><time>2026-04-27T08:30:49.987Z</time></trkpt><trkpt lat="39.91426572379528" lon="8.766818452546104"><ele>57.0</ele><time>2026-04-27T08:30:50.987Z</time></trkpt><trkpt lat="39.91432460946896" lon="8.766920001066516"><ele>58.0</ele><time>2026-04-27T08:30:51.987Z</time></trkpt><trkpt lat="39.91437863638244" lon="8.76701368937816"><ele>59.0</ele><time>2026-04-27T08:30:52.987Z</time></trkpt><trkpt lat="39.914437615406996" lon="8.76711240238037"><ele>60.0</ele><time>2026-04-27T08:30:53.987Z</time></trkpt><trkpt lat="39.91450361965241" lon="8.767226155010794"><ele>62.25</ele><time>2026-04-27T08:30:54.987Z</time></trkpt><trkpt lat="39.91457534081085" lon="8.767346782146108"><ele>64.5</ele><time>2026-04-27T08:30:55.987Z</time></trkpt><trkpt lat="39.91465053340829" lon="8.76746674188682"><ele>66.75</ele><time>2026-04-27T08:30:56.987Z</time></trkpt><trkpt lat="39.91472242406005" lon="8.767578436628261"><ele>69.0</ele><time>2026-04-27T08:30:57.987Z</time></trkpt><trkpt lat="39.914796424465536" lon="8.767690448710814"><ele>69.8</ele><time>2026-04-27T08:30:58.986Z</time></trkpt><trkpt lat="39.914871914105255" lon="8.767790297096159"><ele>70.60000000000001</ele><time>2026-04-27T08:30:59.986Z</time></trkpt><trkpt lat="39.91493478843096" lon="8.76787285138585"><ele>71.4</ele><time>2026-04-27T08:31:00.986Z</time></trkpt><trkpt lat="39.9149714473547" lon="8.767940162633524"><ele>72.2</ele><time>2026-04-27T08:31:01.986Z</time></trkpt><trkpt lat="39.91502150432705" lon="8.768028117948353"><ele>73.0</ele><time>2026-04-27T08:31:03.986Z</time></trkpt><trkpt lat="39.91488970049072" lon="8.768127718940116"><ele>73.0</ele><time>2026-04-27T08:31:04.986Z</time></trkpt><trkpt lat="39.91483723720323" lon="8.768220775759692"><ele>73.0</ele><time>2026-04-27T08:31:05.985Z</time></trkpt><trkpt lat="39.91476441230821" lon="8.768348074650834"><ele>73.0</ele><time>2026-04-27T08:31:06.985Z</time></trkpt><trkpt lat="39.91469332355112" lon="8.768451673978104"><ele>73.0</ele><time>2026-04-27T08:31:07.986Z</time></trkpt><trkpt lat="39.91460912038746" lon="8.768599878585894"><ele>72.5</ele><time>2026-04-27T08:31:08.986Z</time></trkpt><trkpt lat="39.914530834792764" lon="8.768738885047338"><ele>72.0</ele><time>2026-04-27T08:31:09.986Z</time></trkpt><trkpt lat="39.91444162844524" lon="8.768906083778043"><ele>71.5</ele><time>2026-04-27T08:31:10.986Z</time></trkpt><trkpt lat="39.91436231435464" lon="8.769061703250761"><ele>71.0</ele><time>2026-04-27T08:31:11.986Z</time></trkpt><trkpt lat="39.91429372284738" lon="8.769203999249614"><ele>71.0</ele><time>2026-04-27T08:31:12.986Z</time></trkpt><trkpt lat="39.914240008775565" lon="8.769343628626428"><ele>71.0</ele><time>2026-04-27T08:31:13.986Z</time></trkpt><trkpt lat="39.91419474005323" lon="8.76947530902236"><ele>71.0</ele><time>2026-04-27T08:31:14.986Z</time></trkpt><trkpt lat="39.91413934853599" lon="8.769608422657354"><ele>71.0</ele><time>2026-04-27T08:31:15.986Z</time></trkpt><trkpt lat="39.91408292636904" lon="8.769744339404175"><ele>72.25</ele><time>2026-04-27T08:31:16.986Z</time></trkpt><trkpt lat="39.91402608866182" lon="8.769901865508075"><ele>73.5</ele><time>2026-04-27T08:31:17.986Z</time></trkpt><trkpt lat="39.91397170714485" lon="8.770043377848928"><ele>74.75</ele><time>2026-04-27T08:31:18.986Z</time></trkpt><trkpt lat="39.91389675922463" lon="8.770186593258366"><ele>76.0</ele><time>2026-04-27T08:31:19.986Z</time></trkpt><trkpt lat="39.91384019576814" lon="8.770336727911275"><ele>76.0</ele><time>2026-04-27T08:31:20.986Z</time></trkpt><trkpt lat="39.9137758558745" lon="8.770495478281427"><ele>76.0</ele><time>2026-04-27T08:31:21.986Z</time></trkpt><trkpt lat="39.91370897058783" lon="8.770659434983404"><ele>76.0</ele><time>2026-04-27T08:31:22.986Z</time></trkpt><trkpt lat="39.91364497383101" lon="8.770823542183175"><ele>76.0</ele><time>2026-04-27T08:31:23.986Z</time></trkpt><trkpt lat="39.91358141303462" lon="8.770990770248996"><ele>75.75</ele><time>2026-04-27T08:31:24.986Z</time></trkpt><trkpt lat="39.91351440626976" lon="8.771155935778843"><ele>75.5</ele><time>2026-04-27T08:31:25.986Z</time></trkpt><trkpt lat="39.91346426553879" lon="8.771277849212595"><ele>75.25</ele><time>2026-04-27T08:31:26.986Z</time></trkpt><trkpt lat="39.91341365114916" lon="8.771406991348126"><ele>75.0</ele><time>2026-04-27T08:31:27.986Z</time></trkpt><trkpt lat="39.913360053457836" lon="8.771542942512093"><ele>75.0</ele><time>2026-04-27T08:31:28.986Z</time></trkpt><trkpt lat="39.913304701101744" lon="8.77168153893404"><ele>75.0</ele><time>2026-04-27T08:31:29.986Z</time></trkpt><trkpt lat="39.91323988459584" lon="8.77184015155371"><ele>75.0</ele><time>2026-04-27T08:31:30.986Z</time></trkpt><trkpt lat="39.91315933638597" lon="8.771978461159884"><ele>75.0</ele><time>2026-04-27T08:31:31.986Z</time></trkpt><trkpt lat="39.91309204179385" lon="8.77212975065962"><ele>75.5</ele><time>2026-04-27T08:31:32.986Z</time></trkpt><trkpt lat="39.91301804685133" lon="8.77227266972906"><ele>76.0</ele><time>2026-04-27T08:31:33.986Z</time></trkpt><trkpt lat="39.912947011355165" lon="8.772415003901846"><ele>76.5</ele><time>2026-04-27T08:31:34.986Z</time></trkpt><trkpt lat="39.912871180341156" lon="8.772565968713614"><ele>77.0</ele><time>2026-04-27T08:31:35.986Z</time></trkpt><trkpt lat="39.91279486292439" lon="8.772717876439065"><ele>76.25</ele><time>2026-04-27T08:31:36.986Z</time></trkpt><trkpt lat="39.91271784459007" lon="8.77286422581664"><ele>75.5</ele><time>2026-04-27T08:31:37.986Z</time></trkpt><trkpt lat="39.91266149181329" lon="8.772990557605667"><ele>74.75</ele><time>2026-04-27T08:31:38.986Z</time></trkpt><trkpt lat="39.91260122480909" lon="8.773117971310176"><ele>74.0</ele><time>2026-04-27T08:31:39.986Z</time></trkpt><trkpt lat="39.91254006627319" lon="8.773243532998286"><ele>74.0</ele><time>2026-04-27T08:31:40.986Z</time></trkpt><trkpt lat="39.91247450422706" lon="8.773338595359425"><ele>74.0</ele><time>2026-04-27T08:31:41.986Z</time></trkpt><trkpt lat="39.91245170658785" lon="8.77342394077316"><ele>74.0</ele><time>2026-04-27T08:31:42.986Z</time></trkpt><trkpt lat="39.9124077173986" lon="8.773495013228503"><ele>74.0</ele><time>2026-04-27T08:31:44.986Z</time></trkpt><trkpt lat="39.91253662736895" lon="8.773557238399201"><ele>74.0</ele><time>2026-04-27T08:31:47.986Z</time></trkpt><trkpt lat="39.91259685278666" lon="8.773523542548983"><ele>74.0</ele><time>2026-04-27T08:31:48.986Z</time></trkpt><trkpt lat="39.91267906312778" lon="8.773477418306816"><ele>75.4</ele><time>2026-04-27T08:31:49.986Z</time></trkpt><trkpt lat="39.91277010244268" lon="8.77344815313008"><ele>76.80000000000001</ele><time>2026-04-27T08:31:50.986Z</time></trkpt><trkpt lat="39.91286293638912" lon="8.773398231836783"><ele>78.19999999999999</ele><time>2026-04-27T08:31:51.986Z</time></trkpt><trkpt lat="39.91296091799938" lon="8.773346760938006"><ele>79.6</ele><time>2026-04-27T08:31:52.986Z</time></trkpt><trkpt lat="39.91306583595055" lon="8.77330818090748"><ele>81.0</ele><time>2026-04-27T08:31:53.986Z</time></trkpt><trkpt lat="39.913175993858495" lon="8.773298981455145"><ele>81.0</ele><time>2026-04-27T08:31:54.986Z</time></trkpt><trkpt lat="39.913283735042725" lon="8.773287194674312"><ele>81.0</ele><time>2026-04-27T08:31:55.986Z</time></trkpt><trkpt lat="39.913397714312055" lon="8.773275479471057"><ele>81.0</ele><time>2026-04-27T08:31:56.986Z</time></trkpt><trkpt lat="39.91350570047984" lon="8.77325366071936"><ele>81.0</ele><time>2026-04-27T08:31:57.986Z</time></trkpt><trkpt lat="39.91361391682703" lon="8.773248627646593"><ele>81.0</ele><time>2026-04-27T08:31:58.986Z</time></trkpt><trkpt lat="39.913723185739265" lon="8.77322233898638"><ele>81.25</ele><time>2026-04-27T08:31:59.986Z</time></trkpt><trkpt lat="39.91383352413669" lon="8.773179486198467"><ele>81.5</ele><time>2026-04-27T08:32:00.986Z</time></trkpt><trkpt lat="39.91394737463532" lon="8.773122419608992"><ele>81.75</ele><time>2026-04-27T08:32:01.986Z</time></trkpt><trkpt lat="39.91405872222323" lon="8.773058175832576"><ele>82.0</ele><time>2026-04-27T08:32:02.986Z</time></trkpt><trkpt lat="39.9141567262446" lon="8.772994485241696"><ele>81.0</ele><time>2026-04-27T08:32:03.986Z</time></trkpt><trkpt lat="39.91425694805565" lon="8.772915593835938"><ele>80.0</ele><time>2026-04-27T08:32:04.986Z</time></trkpt><trkpt lat="39.914358724398035" lon="8.772817060055479"><ele>79.0</ele><time>2026-04-27T08:32:05.986Z</time></trkpt><trkpt lat="39.914461395438195" lon="8.772705803833187"><ele>78.0</ele><time>2026-04-27T08:32:06.986Z</time></trkpt><trkpt lat="39.914555334063635" lon="8.772603071289698"><ele>77.8</ele><time>2026-04-27T08:32:07.986Z</time></trkpt><trkpt lat="39.914653834017294" lon="8.772509477863537"><ele>77.6</ele><time>2026-04-27T08:32:08.986Z</time></trkpt><trkpt lat="39.91475097092575" lon="8.772430347535574"><ele>77.4</ele><time>2026-04-27T08:32:09.986Z</time></trkpt><trkpt lat="39.91482611564523" lon="8.772367973106016"><ele>77.2</ele><time>2026-04-27T08:32:10.986Z</time></trkpt><trkpt lat="39.91488937338275" lon="8.772315216312657"><ele>77.0</ele><time>2026-04-27T08:32:11.986Z</time></trkpt><trkpt lat="39.91497960105623" lon="8.772276917844973"><ele>77.0</ele><time>2026-04-27T08:32:13.986Z</time></trkpt><trkpt lat="39.9149503871408" lon="8.772401019620203"><ele>77.0</ele><time>2026-04-27T08:32:17.986Z</time></trkpt><trkpt lat="39.914922248553154" lon="8.772476024087494"><ele>77.0</ele><time>2026-04-27T08:32:18.986Z</time></trkpt><trkpt lat="39.91488809660375" lon="8.772567744442085"><ele>77.0</ele><time>2026-04-27T08:32:19.986Z</time></trkpt><trkpt lat="39.91484285022081" lon="8.77268926066745"><ele>77.0</ele><time>2026-04-27T08:32:20.986Z</time></trkpt><trkpt lat="39.91480296717771" lon="8.772832045659253"><ele>77.25</ele><time>2026-04-27T08:32:21.986Z</time></trkpt><trkpt lat="39.914753738283274" lon="8.772969568672579"><ele>77.5</ele><time>2026-04-27T08:32:22.986Z</time></trkpt><trkpt lat="39.91469371531443" lon="8.773092175529952"><ele>77.75</ele><time>2026-04-27T08:32:23.986Z</time></trkpt><trkpt lat="39.914644430395946" lon="8.773244946986255"><ele>78.0</ele><time>2026-04-27T08:32:24.986Z</time></trkpt><trkpt lat="39.91457753229945" lon="8.773411214119795"><ele>78.33333333333333</ele><time>2026-04-27T08:32:25.986Z</time></trkpt><trkpt lat="39.91450039271073" lon="8.773592553696062"><ele>78.66666666666666</ele><time>2026-04-27T08:32:26.986Z</time></trkpt><trkpt lat="39.91443303728689" lon="8.773764111326976"><ele>79.0</ele><time>2026-04-27T08:32:27.986Z</time></trkpt><trkpt lat="39.914361237175015" lon="8.773935095926824"><ele>79.0</ele><time>2026-04-27T08:32:28.986Z</time></trkpt><trkpt lat="39.914291253829056" lon="8.774107675443052"><ele>79.0</ele><time>2026-04-27T08:32:29.986Z</time></trkpt><trkpt lat="39.914214900515404" lon="8.77429411152991"><ele>79.0</ele><time>2026-04-27T08:32:30.986Z</time></trkpt><trkpt lat="39.914143387259685" lon="8.77447938658503"><ele>79.75</ele><time>2026-04-27T08:32:31.986Z</time></trkpt><trkpt lat="39.914074885975474" lon="8.774660052494042"><ele>80.5</ele><time>2026-04-27T08:32:32.986Z</time></trkpt><trkpt lat="39.913991211312236" lon="8.774819583508613"><ele>81.25</ele><time>2026-04-27T08:32:33.986Z</time></trkpt><trkpt lat="39.913928016335824" lon="8.774989415548472"><ele>82.0</ele><time>2026-04-27T08:32:34.986Z</time></trkpt><trkpt lat="39.91387248673348" lon="8.775172406680554"><ele>82.66666666666666</ele><time>2026-04-27T08:32:35.986Z</time></trkpt><trkpt lat="39.91381920016744" lon="8.77536639574801"><ele>83.33333333333333</ele><time>2026-04-27T08:32:36.986Z</time></trkpt><trkpt lat="39.91379287181564" lon="8.775565198352126"><ele>84.0</ele><time>2026-04-27T08:32:37.986Z</time></trkpt><trkpt lat="39.91377039124315" lon="8.775762282379228"><ele>84.0</ele><time>2026-04-27T08:32:38.986Z</time></trkpt><trkpt lat="39.91375072696165" lon="8.775969409508887"><ele>84.0</ele><time>2026-04-27T08:32:39.986Z</time></trkpt><trkpt lat="39.91373314327413" lon="8.77620811164302"><ele>84.0</ele><time>2026-04-27T08:32:40.986Z</time></trkpt><trkpt lat="39.91372762792043" lon="8.776445224181684"><ele>84.33333333333333</ele><time>2026-04-27T08:32:41.986Z</time></trkpt><trkpt lat="39.91371637893723" lon="8.776696449141127"><ele>84.66666666666666</ele><time>2026-04-27T08:32:42.986Z</time></trkpt><trkpt lat="39.913735932476136" lon="8.776944205987869"><ele>85.0</ele><time>2026-04-27T08:32:43.986Z</time></trkpt><trkpt lat="39.913744908950356" lon="8.777196373409064"><ele>85.66666666666666</ele><time>2026-04-27T08:32:44.986Z</time></trkpt><trkpt lat="39.91376178400444" lon="8.777434648748338"><ele>86.33333333333333</ele><time>2026-04-27T08:32:45.986Z</time></trkpt><trkpt lat="39.913778989397436" lon="8.777675221866607"><ele>87.0</ele><time>2026-04-27T08:32:46.986Z</time></trkpt><trkpt lat="39.91380118078852" lon="8.777905456034292"><ele>87.75</ele><time>2026-04-27T08:32:47.986Z</time></trkpt><trkpt lat="39.91381747943016" lon="8.77810736976208"><ele>88.5</ele><time>2026-04-27T08:32:48.986Z</time></trkpt><trkpt lat="39.91383091228845" lon="8.778285040064384"><ele>89.25</ele><time>2026-04-27T08:32:49.986Z</time></trkpt><trkpt lat="39.913864682922714" lon="8.778456042653445"><ele>90.0</ele><time>2026-04-27T08:32:50.986Z</time></trkpt><trkpt lat="39.9139201492285" lon="8.778627296158133"><ele>90.33333333333333</ele><time>2026-04-27T08:32:51.986Z</time></trkpt><trkpt lat="39.91399140949116" lon="8.778811604474631"><ele>90.66666666666666</ele><time>2026-04-27T08:32:52.986Z</time></trkpt><trkpt lat="39.91405629163753" lon="8.779007280856893"><ele>91.0</ele><time>2026-04-27T08:32:53.986Z</time></trkpt><trkpt lat="39.91412341302108" lon="8.779207273716755"><ele>91.0</ele><time>2026-04-27T08:32:54.986Z</time></trkpt><trkpt lat="39.9141845853555" lon="8.779393067308527"><ele>91.0</ele><time>2026-04-27T08:32:55.986Z</time></trkpt><trkpt lat="39.91425112651489" lon="8.779559183640032"><ele>91.0</ele><time>2026-04-27T08:32:56.986Z</time></trkpt><trkpt lat="39.91433585988266" lon="8.779703976573028"><ele>91.0</ele><time>2026-04-27T08:32:57.986Z</time></trkpt><trkpt lat="39.91443332212498" lon="8.779845756549436"><ele>92.25</ele><time>2026-04-27T08:32:58.986Z</time></trkpt><trkpt lat="39.914536688453175" lon="8.779982356010974"><ele>93.5</ele><time>2026-04-27T08:32:59.986Z</time></trkpt><trkpt lat="39.914644231022486" lon="8.780111059218667"><ele>94.75</ele><time>2026-04-27T08:33:00.986Z</time></trkpt><trkpt lat="39.91474760697216" lon="8.780240024369679"><ele>96.0</ele><time>2026-04-27T08:33:01.986Z</time></trkpt><trkpt lat="39.91483768167905" lon="8.7803652069387"><ele>96.5</ele><time>2026-04-27T08:33:02.986Z</time></trkpt><trkpt lat="39.91489503070707" lon="8.78049290639093"><ele>97.0</ele><time>2026-04-27T08:33:03.986Z</time></trkpt><trkpt lat="39.914970201668936" lon="8.78061960591742"><ele>97.5</ele><time>2026-04-27T08:33:04.985Z</time></trkpt><trkpt lat="39.915010067499686" lon="8.780780808008426"><ele>98.0</ele><time>2026-04-27T08:33:05.985Z</time></trkpt><trkpt lat="39.91505862730218" lon="8.780937794534335"><ele>99.5</ele><time>2026-04-27T08:33:06.985Z</time></trkpt><trkpt lat="39.91510340789201" lon="8.781095246369414"><ele>101.0</ele><time>2026-04-27T08:33:07.985Z</time></trkpt><trkpt lat="39.91513852872614" lon="8.781252484107519"><ele>102.5</ele><time>2026-04-27T08:33:08.985Z</time></trkpt><trkpt lat="39.915136703442734" lon="8.781410610331923"><ele>104.0</ele><time>2026-04-27T08:33:09.985Z</time></trkpt><trkpt lat="39.91511834354582" lon="8.78156985573785"><ele>104.0</ele><time>2026-04-27T08:33:10.985Z</time></trkpt><trkpt lat="39.91511345917617" lon="8.781728163802178"><ele>104.0</ele><time>2026-04-27T08:33:11.985Z</time></trkpt><trkpt lat="39.91514907104876" lon="8.781869786653079"><ele>104.0</ele><time>2026-04-27T08:33:12.985Z</time></trkpt><trkpt lat="39.91518397508168" lon="8.782009014556325"><ele>104.0</ele><time>2026-04-27T08:33:13.985Z</time></trkpt><trkpt lat="39.91524145764253" lon="8.7821516313376"><ele>104.25</ele><time>2026-04-27T08:33:14.985Z</time></trkpt><trkpt lat="39.91531052566647" lon="8.782303399209058"><ele>104.5</ele><time>2026-04-27T08:33:15.985Z</time></trkpt><trkpt lat="39.91538638338189" lon="8.782449605583952"><ele>104.75</ele><time>2026-04-27T08:33:16.985Z</time></trkpt><trkpt lat="39.915452022143256" lon="8.782573772366526"><ele>105.0</ele><time>2026-04-27T08:33:17.985Z</time></trkpt><trkpt lat="39.91554599031723" lon="8.782661673101211"><ele>105.5</ele><time>2026-04-27T08:33:18.985Z</time></trkpt><trkpt lat="39.91565401775974" lon="8.782739097312161"><ele>106.0</ele><time>2026-04-27T08:33:19.985Z</time></trkpt><trkpt lat="39.9157669199698" lon="8.782823147387067"><ele>106.5</ele><time>2026-04-27T08:33:20.985Z</time></trkpt><trkpt lat="39.91588328687878" lon="8.782926730819327"><ele>107.0</ele><time>2026-04-27T08:33:21.985Z</time></trkpt><trkpt lat="39.91601042974444" lon="8.783034944016675"><ele>108.66666666666666</ele><time>2026-04-27T08:33:22.985Z</time></trkpt><trkpt lat="39.91614526461491" lon="8.783129232882867"><ele>110.33333333333334</ele><time>2026-04-27T08:33:23.985Z</time></trkpt><trkpt lat="39.91626585650842" lon="8.783243902086767"><ele>112.0</ele><time>2026-04-27T08:33:24.985Z</time></trkpt><trkpt lat="39.91640687096704" lon="8.783321343612704"><ele>112.0</ele><time>2026-04-27T08:33:25.985Z</time></trkpt><trkpt lat="39.91655782948295" lon="8.783384581218833"><ele>112.0</ele><time>2026-04-27T08:33:26.985Z</time></trkpt><trkpt lat="39.916713241080025" lon="8.783448200487069"><ele>112.0</ele><time>2026-04-27T08:33:27.985Z</time></trkpt><trkpt lat="39.91686320573504" lon="8.783499394311622"><ele>114.0</ele><time>2026-04-27T08:33:28.985Z</time></trkpt><trkpt lat="39.917008201112715" lon="8.78354771908993"><ele>116.0</ele><time>2026-04-27T08:33:29.985Z</time></trkpt><trkpt lat="39.91714505023216" lon="8.783600535136252"><ele>118.0</ele><time>2026-04-27T08:33:30.985Z</time></trkpt><trkpt lat="39.91727382160856" lon="8.783673033883378"><ele>120.0</ele><time>2026-04-27T08:33:31.985Z</time></trkpt><trkpt lat="39.917395735783806" lon="8.783764029254371"><ele>120.0</ele><time>2026-04-27T08:33:32.985Z</time></trkpt><trkpt lat="39.917486911717006" lon="8.783912601100832"><ele>120.0</ele><time>2026-04-27T08:33:33.985Z</time></trkpt><trkpt lat="39.91758373779942" lon="8.784056120586506"><ele>120.0</ele><time>2026-04-27T08:33:34.985Z</time></trkpt><trkpt lat="39.91768216031051" lon="8.784203344751116"><ele>120.0</ele><time>2026-04-27T08:33:35.985Z</time></trkpt><trkpt lat="39.91778066298847" lon="8.784357592052803"><ele>121.25</ele><time>2026-04-27T08:33:36.985Z</time></trkpt><trkpt lat="39.917871617449165" lon="8.784511438444609"><ele>122.5</ele><time>2026-04-27T08:33:37.985Z</time></trkpt><trkpt lat="39.9179625986704" lon="8.784649960949341"><ele>123.75</ele><time>2026-04-27T08:33:38.985Z</time></trkpt><trkpt lat="39.91805983343778" lon="8.784745283060426"><ele>125.0</ele><time>2026-04-27T08:33:39.985Z</time></trkpt><trkpt lat="39.91815016744802" lon="8.784834122984005"><ele>125.0</ele><time>2026-04-27T08:33:40.985Z</time></trkpt><trkpt lat="39.91826341136607" lon="8.784889723843147"><ele>125.0</ele><time>2026-04-27T08:33:41.985Z</time></trkpt><trkpt lat="39.918379827418406" lon="8.784925257758092"><ele>125.0</ele><time>2026-04-27T08:33:42.985Z</time></trkpt><trkpt lat="39.918509508202575" lon="8.784962246549904"><ele>125.0</ele><time>2026-04-27T08:33:43.985Z</time></trkpt><trkpt lat="39.91863482974146" lon="8.784981771696796"><ele>126.2</ele><time>2026-04-27T08:33:44.985Z</time></trkpt><trkpt lat="39.918743345649524" lon="8.78502931248214"><ele>127.4</ele><time>2026-04-27T08:33:45.985Z</time></trkpt><trkpt lat="39.91879260723023" lon="8.785138442460582"><ele>128.6</ele><time>2026-04-27T08:33:46.985Z</time></trkpt><trkpt lat="39.91885472131875" lon="8.785250312929552"><ele>129.8</ele><time>2026-04-27T08:33:47.985Z</time></trkpt><trkpt lat="39.91892785914801" lon="8.78536445233455"><ele>131.0</ele><time>2026-04-27T08:33:48.985Z</time></trkpt><trkpt lat="39.91900410149388" lon="8.785472820751451"><ele>133.5</ele><time>2026-04-27T08:33:49.985Z</time></trkpt><trkpt lat="39.91908610115253" lon="8.785585920668908"><ele>136.0</ele><time>2026-04-27T08:33:50.985Z</time></trkpt><trkpt lat="39.91915072733647" lon="8.785713338994869"><ele>138.5</ele><time>2026-04-27T08:33:51.985Z</time></trkpt><trkpt lat="39.919187778630835" lon="8.78585134619554"><ele>141.0</ele><time>2026-04-27T08:33:52.985Z</time></trkpt><trkpt lat="39.919187920418885" lon="8.786010153236225"><ele>140.75</ele><time>2026-04-27T08:33:53.985Z</time></trkpt><trkpt lat="39.919205725903126" lon="8.78615270512683"><ele>140.5</ele><time>2026-04-27T08:33:54.985Z</time></trkpt><trkpt lat="39.919219228867796" lon="8.786301597450352"><ele>140.25</ele><time>2026-04-27T08:33:55.985Z</time></trkpt><trkpt lat="39.919232444440716" lon="8.786472219062903"><ele>140.0</ele><time>2026-04-27T08:33:56.985Z</time></trkpt><trkpt lat="39.919239986607636" lon="8.786668659342359"><ele>141.75</ele><time>2026-04-27T08:33:57.985Z</time></trkpt><trkpt lat="39.91925054945453" lon="8.786845601846696"><ele>143.5</ele><time>2026-04-27T08:33:58.985Z</time></trkpt><trkpt lat="39.91925731544791" lon="8.7870204760176"><ele>145.25</ele><time>2026-04-27T08:33:59.985Z</time></trkpt><trkpt lat="39.919264214417545" lon="8.787194132392141"><ele>147.0</ele><time>2026-04-27T08:34:00.985Z</time></trkpt><trkpt lat="39.919269573996786" lon="8.78737632437059"><ele>147.0</ele><time>2026-04-27T08:34:01.985Z</time></trkpt><trkpt lat="39.919272803851186" lon="8.787553643789613"><ele>147.0</ele><time>2026-04-27T08:34:02.985Z</time></trkpt><trkpt lat="39.919275308803684" lon="8.78770555604249"><ele>147.0</ele><time>2026-04-27T08:34:03.985Z</time></trkpt><trkpt lat="39.91925462352625" lon="8.787821605625997"><ele>147.0</ele><time>2026-04-27T08:34:04.985Z</time></trkpt><trkpt lat="39.91922627508194" lon="8.787912581587284"><ele>147.0</ele><time>2026-04-27T08:34:05.985Z</time></trkpt><trkpt lat="39.919194648654525" lon="8.788002177263081"><ele>150.33333333333334</ele><time>2026-04-27T08:34:06.985Z</time></trkpt><trkpt lat="39.919161636008376" lon="8.78809886132131"><ele>153.66666666666666</ele><time>2026-04-27T08:34:07.985Z</time></trkpt><trkpt lat="39.91912603189997" lon="8.788199774096794"><ele>157.0</ele><time>2026-04-27T08:34:08.985Z</time></trkpt><trkpt lat="39.919101722234494" lon="8.788296002233926"><ele>160.33333333333331</ele><time>2026-04-27T08:34:09.985Z</time></trkpt><trkpt lat="39.91906082914101" lon="8.78840156391252"><ele>163.66666666666666</ele><time>2026-04-27T08:34:10.985Z</time></trkpt><trkpt lat="39.919019377367476" lon="8.788503304982084"><ele>167.0</ele><time>2026-04-27T08:34:11.985Z</time></trkpt><trkpt lat="39.9189857212584" lon="8.788609248510083"><ele>168.0</ele><time>2026-04-27T08:34:12.985Z</time></trkpt><trkpt lat="39.91896317609483" lon="8.78871501410946"><ele>169.0</ele><time>2026-04-27T08:34:13.985Z</time></trkpt><trkpt lat="39.918951545857176" lon="8.788833021393357"><ele>170.0</ele><time>2026-04-27T08:34:14.985Z</time></trkpt><trkpt lat="39.91895698464688" lon="8.788969822628161"><ele>171.0</ele><time>2026-04-27T08:34:15.985Z</time></trkpt><trkpt lat="39.918966424274934" lon="8.789112090519387"><ele>172.0</ele><time>2026-04-27T08:34:16.985Z</time></trkpt><trkpt lat="39.91898736559025" lon="8.789248158193974"><ele>173.0</ele><time>2026-04-27T08:34:17.985Z</time></trkpt><trkpt lat="39.91899337741451" lon="8.789392227717242"><ele>174.0</ele><time>2026-04-27T08:34:18.985Z</time></trkpt><trkpt lat="39.91900862486512" lon="8.789545185341712"><ele>175.0</ele><time>2026-04-27T08:34:19.985Z</time></trkpt><trkpt lat="39.91901761588279" lon="8.789699389125625"><ele>176.0</ele><time>2026-04-27T08:34:20.985Z</time></trkpt><trkpt lat="39.91901681321628" lon="8.789843477398"><ele>176.0</ele><time>2026-04-27T08:34:21.985Z</time></trkpt><trkpt lat="39.91900404698722" lon="8.789978623020025"><ele>176.0</ele><time>2026-04-27T08:34:22.985Z</time></trkpt><trkpt lat="39.9189737126714" lon="8.790107935445393"><ele>176.0</ele><time>2026-04-27T08:34:23.985Z</time></trkpt><trkpt lat="39.91893303812208" lon="8.790249782935907"><ele>176.0</ele><time>2026-04-27T08:34:24.985Z</time></trkpt><trkpt lat="39.91891027588055" lon="8.790376863362253"><ele>176.0</ele><time>2026-04-27T08:34:25.985Z</time></trkpt><trkpt lat="39.91891164308368" lon="8.790490772482773"><ele>177.60000000000002</ele><time>2026-04-27T08:34:26.985Z</time></trkpt><trkpt lat="39.91891658513793" lon="8.790612142614108"><ele>179.2</ele><time>2026-04-27T08:34:27.985Z</time></trkpt><trkpt lat="39.91892647138674" lon="8.79074433101138"><ele>180.8</ele><time>2026-04-27T08:34:28.985Z</time></trkpt><trkpt lat="39.918931456363154" lon="8.790876557348536"><ele>182.39999999999998</ele><time>2026-04-27T08:34:29.985Z</time></trkpt><trkpt lat="39.91893849715597" lon="8.791002498082209"><ele>184.0</ele><time>2026-04-27T08:34:30.985Z</time></trkpt><trkpt lat="39.918954135909054" lon="8.791119322366832"><ele>184.5</ele><time>2026-04-27T08:34:31.985Z</time></trkpt><trkpt lat="39.91897964490334" lon="8.791225769146982"><ele>185.0</ele><time>2026-04-27T08:34:32.985Z</time></trkpt><trkpt lat="39.919019660737995" lon="8.791304941460895"><ele>185.5</ele><time>2026-04-27T08:34:33.985Z</time></trkpt><trkpt lat="39.91907349370628" lon="8.791370060215447"><ele>186.0</ele><time>2026-04-27T08:34:34.985Z</time></trkpt><trkpt lat="39.919144848863304" lon="8.791413870892068"><ele>186.5</ele><time>2026-04-27T08:34:35.985Z</time></trkpt><trkpt lat="39.91923149738379" lon="8.791451987851154"><ele>187.0</ele><time>2026-04-27T08:34:36.985Z</time></trkpt><trkpt lat="39.91931907200968" lon="8.791478139122832"><ele>187.0</ele><time>2026-04-27T08:34:37.985Z</time></trkpt><trkpt lat="39.919411397235606" lon="8.791500938654998"><ele>187.0</ele><time>2026-04-27T08:34:38.985Z</time></trkpt><trkpt lat="39.919478766408936" lon="8.791548878871119"><ele>187.0</ele><time>2026-04-27T08:34:39.985Z</time></trkpt><trkpt lat="39.91954129235428" lon="8.791613067294898"><ele>187.0</ele><time>2026-04-27T08:34:41.985Z</time></trkpt><trkpt lat="39.919583481086185" lon="8.791679610626169"><ele>187.0</ele><time>2026-04-27T08:34:42.985Z</time></trkpt><trkpt lat="39.91957980818942" lon="8.79178389196042"><ele>187.0</ele><time>2026-04-27T08:34:43.985Z</time></trkpt><trkpt lat="39.919591996261296" lon="8.79189617173614"><ele>187.83333333333334</ele><time>2026-04-27T08:34:44.985Z</time></trkpt><trkpt lat="39.91960195550625" lon="8.792015208624692"><ele>188.66666666666669</ele><time>2026-04-27T08:34:45.985Z</time></trkpt><trkpt lat="39.91961687973691" lon="8.792126005878258"><ele>189.5</ele><time>2026-04-27T08:34:46.985Z</time></trkpt><trkpt lat="39.91963370565995" lon="8.792243971289732"><ele>190.33333333333334</ele><time>2026-04-27T08:34:47.985Z</time></trkpt><trkpt lat="39.919643291577046" lon="8.792362396002458"><ele>191.16666666666666</ele><time>2026-04-27T08:34:48.985Z</time></trkpt><trkpt lat="39.91964058567247" lon="8.792477146789"><ele>192.0</ele><time>2026-04-27T08:34:49.985Z</time></trkpt><trkpt lat="39.91961708284072" lon="8.792564399762123"><ele>192.0</ele><time>2026-04-27T08:34:50.985Z</time></trkpt><trkpt lat="39.919555342815755" lon="8.792619725822616"><ele>192.0</ele><time>2026-04-27T08:34:51.985Z</time></trkpt><trkpt lat="39.919496763191326" lon="8.792684872763937"><ele>192.0</ele><time>2026-04-27T08:34:52.985Z</time></trkpt><trkpt lat="39.91944044815657" lon="8.792753840255727"><ele>192.0</ele><time>2026-04-27T08:34:53.985Z</time></trkpt><trkpt lat="39.91938040452965" lon="8.792826555460401"><ele>192.0</ele><time>2026-04-27T08:34:54.985Z</time></trkpt><trkpt lat="39.91931907178769" lon="8.792902566163837"><ele>192.0</ele><time>2026-04-27T08:34:55.985Z</time></trkpt><trkpt lat="39.91925969643447" lon="8.792983230175492"><ele>194.5</ele><time>2026-04-27T08:34:56.985Z</time></trkpt><trkpt lat="39.91920032047563" lon="8.793058379813308"><ele>197.0</ele><time>2026-04-27T08:34:57.985Z</time></trkpt><trkpt lat="39.919129209371" lon="8.793126730470586"><ele>199.5</ele><time>2026-04-27T08:34:58.985Z</time></trkpt><trkpt lat="39.91905391770521" lon="8.793187984166991"><ele>202.0</ele><time>2026-04-27T08:34:59.985Z</time></trkpt><trkpt lat="39.918979931297706" lon="8.793251029588951"><ele>204.5</ele><time>2026-04-27T08:35:00.985Z</time></trkpt><trkpt lat="39.91890857008587" lon="8.793329846210836"><ele>207.0</ele><time>2026-04-27T08:35:01.985Z</time></trkpt><trkpt lat="39.91884229534741" lon="8.79342080627576"><ele>206.8</ele><time>2026-04-27T08:35:02.985Z</time></trkpt><trkpt lat="39.91880025345969" lon="8.793510531985415"><ele>206.6</ele><time>2026-04-27T08:35:03.985Z</time></trkpt><trkpt lat="39.91876756761561" lon="8.793606566901067"><ele>206.4</ele><time>2026-04-27T08:35:04.985Z</time></trkpt><trkpt lat="39.9187348079198" lon="8.79372698399329"><ele>206.20000000000002</ele><time>2026-04-27T08:35:05.985Z</time></trkpt><trkpt lat="39.91869979039475" lon="8.793851039465192"><ele>206.0</ele><time>2026-04-27T08:35:06.985Z</time></trkpt><trkpt lat="39.91864310241403" lon="8.79394462905267"><ele>206.0</ele><time>2026-04-27T08:35:07.985Z</time></trkpt><trkpt lat="39.91859704054291" lon="8.794036999134"><ele>206.0</ele><time>2026-04-27T08:35:08.985Z</time></trkpt><trkpt lat="39.91854673944895" lon="8.7941356593069"><ele>206.0</ele><time>2026-04-27T08:35:09.985Z</time></trkpt><trkpt lat="39.918506487855154" lon="8.794231847486662"><ele>206.0</ele><time>2026-04-27T08:35:10.984Z</time></trkpt><trkpt lat="39.91845997349909" lon="8.794348362395326"><ele>206.0</ele><time>2026-04-27T08:35:11.984Z</time></trkpt><trkpt lat="39.9184280512569" lon="8.794469923413969"><ele>207.0</ele><time>2026-04-27T08:35:12.984Z</time></trkpt><trkpt lat="39.918401772041044" lon="8.794615161116509"><ele>208.0</ele><time>2026-04-27T08:35:13.984Z</time></trkpt><trkpt lat="39.91838312276156" lon="8.794756106297733"><ele>209.0</ele><time>2026-04-27T08:35:14.984Z</time></trkpt><trkpt lat="39.91835850119841" lon="8.79490912465182"><ele>210.0</ele><time>2026-04-27T08:35:15.984Z</time></trkpt><trkpt lat="39.918311313625175" lon="8.795045227680353"><ele>212.33333333333334</ele><time>2026-04-27T08:35:16.984Z</time></trkpt><trkpt lat="39.91827590435787" lon="8.795172106499136"><ele>214.66666666666669</ele><time>2026-04-27T08:35:17.984Z</time></trkpt><trkpt lat="39.9182439862072" lon="8.795280498650952"><ele>217.0</ele><time>2026-04-27T08:35:18.984Z</time></trkpt><trkpt lat="39.918228755013516" lon="8.795384891691196"><ele>219.33333333333334</ele><time>2026-04-27T08:35:19.984Z</time></trkpt><trkpt lat="39.918238001856736" lon="8.795478508363967"><ele>221.66666666666669</ele><time>2026-04-27T08:35:20.984Z</time></trkpt><trkpt lat="39.91828433540354" lon="8.795553065470488"><ele>224.0</ele><time>2026-04-27T08:35:21.984Z</time></trkpt><trkpt lat="39.91831506651885" lon="8.795638825689444"><ele>224.00000000000003</ele><time>2026-04-27T08:35:22.984Z</time></trkpt><trkpt lat="39.918382685306156" lon="8.795717379188266"><ele>224.0</ele><time>2026-04-27T08:35:23.984Z</time></trkpt><trkpt lat="39.91845295572902" lon="8.795788720622411"><ele>224.0</ele><time>2026-04-27T08:35:24.984Z</time></trkpt><trkpt lat="39.91851693296652" lon="8.79587523420739"><ele>224.0</ele><time>2026-04-27T08:35:25.984Z</time></trkpt><trkpt lat="39.91857373086636" lon="8.795964792588176"><ele>224.00000000000003</ele><time>2026-04-27T08:35:26.984Z</time></trkpt><trkpt lat="39.91861669712913" lon="8.796044195901942"><ele>224.0</ele><time>2026-04-27T08:35:27.984Z</time></trkpt><trkpt lat="39.91865943432508" lon="8.79612923047435"><ele>226.50000000000003</ele><time>2026-04-27T08:35:28.984Z</time></trkpt><trkpt lat="39.91869985292353" lon="8.796225686873656"><ele>229.0</ele><time>2026-04-27T08:35:29.984Z</time></trkpt><trkpt lat="39.91874870827483" lon="8.796322371684148"><ele>231.5</ele><time>2026-04-27T08:35:30.984Z</time></trkpt><trkpt lat="39.91879714426178" lon="8.796389768343502"><ele>234.0</ele><time>2026-04-27T08:35:31.984Z</time></trkpt><trkpt lat="39.91885073887205" lon="8.796475827227368"><ele>236.50000000000003</ele><time>2026-04-27T08:35:32.984Z</time></trkpt><trkpt lat="39.91890534982704" lon="8.796569666076197"><ele>239.0</ele><time>2026-04-27T08:35:33.984Z</time></trkpt><trkpt lat="39.91895716085435" lon="8.796652655420825"><ele>239.00000000000003</ele><time>2026-04-27T08:35:34.984Z</time></trkpt><trkpt lat="39.91902390931341" lon="8.796730238229722"><ele>239.0</ele><time>2026-04-27T08:35:35.984Z</time></trkpt><trkpt lat="39.91909805030435" lon="8.796805185089381"><ele>239.0</ele><time>2026-04-27T08:35:36.984Z</time></trkpt><trkpt lat="39.91917531405032" lon="8.79687190779268"><ele>239.0</ele><time>2026-04-27T08:35:37.984Z</time></trkpt><trkpt lat="39.91924632195356" lon="8.796951046484894"><ele>239.00000000000003</ele><time>2026-04-27T08:35:38.984Z</time></trkpt><trkpt lat="39.91930329197571" lon="8.797019865391098"><ele>239.0</ele><time>2026-04-27T08:35:39.984Z</time></trkpt><trkpt lat="39.91936089453656" lon="8.797112124296536"><ele>238.83333333333334</ele><time>2026-04-27T08:35:40.984Z</time></trkpt><trkpt lat="39.91941192073918" lon="8.79719819299624"><ele>238.66666666666669</ele><time>2026-04-27T08:35:41.984Z</time></trkpt><trkpt lat="39.91942887588988" lon="8.79729352966643"><ele>238.5</ele><time>2026-04-27T08:35:42.984Z</time></trkpt><trkpt lat="39.91945888166676" lon="8.79737371607129"><ele>238.33333333333331</ele><time>2026-04-27T08:35:43.984Z</time></trkpt><trkpt lat="39.919439041603624" lon="8.797490063719438"><ele>238.16666666666666</ele><time>2026-04-27T08:35:45.984Z</time></trkpt><trkpt lat="39.91934456760922" lon="8.797563889472611"><ele>238.0</ele><time>2026-04-27T08:35:47.984Z</time></trkpt><trkpt lat="39.919235648523085" lon="8.797651173493602"><ele>241.60000000000002</ele><time>2026-04-27T08:35:49.984Z</time></trkpt><trkpt lat="39.9191827735464" lon="8.797701639341678"><ele>245.20000000000002</ele><time>2026-04-27T08:35:50.984Z</time></trkpt><trkpt lat="39.91913563997683" lon="8.79775996449546"><ele>248.8</ele><time>2026-04-27T08:35:51.984Z</time></trkpt><trkpt lat="39.91905793397969" lon="8.79786469082862"><ele>252.4</ele><time>2026-04-27T08:35:53.984Z</time></trkpt><trkpt lat="39.918973006236456" lon="8.797989528728907"><ele>256.0</ele><time>2026-04-27T08:35:55.984Z</time></trkpt><trkpt lat="39.91888919798606" lon="8.798139879987668"><ele>256.0</ele><time>2026-04-27T08:35:57.984Z</time></trkpt><trkpt lat="39.91877790396409" lon="8.79832104977598"><ele>256.0</ele><time>2026-04-27T08:35:59.984Z</time></trkpt><trkpt lat="39.91872739681187" lon="8.798408829197498"><ele>256.0</ele><time>2026-04-27T08:36:00.984Z</time></trkpt><trkpt lat="39.91869510493049" lon="8.798495822778213"><ele>256.0</ele><time>2026-04-27T08:36:01.984Z</time></trkpt><trkpt lat="39.91867179311174" lon="8.798583019969163"><ele>256.0</ele><time>2026-04-27T08:36:02.984Z</time></trkpt><trkpt lat="39.918665466311545" lon="8.798680927362028"><ele>256.5</ele><time>2026-04-27T08:36:03.984Z</time></trkpt><trkpt lat="39.91868401086545" lon="8.798779085316879"><ele>257.0</ele><time>2026-04-27T08:36:04.984Z</time></trkpt><trkpt lat="39.918725867228666" lon="8.798876401905272"><ele>257.5</ele><time>2026-04-27T08:36:05.984Z</time></trkpt><trkpt lat="39.91877400490143" lon="8.798979795224367"><ele>258.0</ele><time>2026-04-27T08:36:06.984Z</time></trkpt><trkpt lat="39.91880200248571" lon="8.799072827264593"><ele>258.5</ele><time>2026-04-27T08:36:07.984Z</time></trkpt><trkpt lat="39.918810403434726" lon="8.79917267328791"><ele>259.0</ele><time>2026-04-27T08:36:08.984Z</time></trkpt><trkpt lat="39.91878483312983" lon="8.799261564119151"><ele>259.8333333333333</ele><time>2026-04-27T08:36:09.984Z</time></trkpt><trkpt lat="39.918767448932066" lon="8.799343069652183"><ele>260.66666666666663</ele><time>2026-04-27T08:36:10.984Z</time></trkpt><trkpt lat="39.91874813768026" lon="8.799445522926906"><ele>261.5</ele><time>2026-04-27T08:36:11.984Z</time></trkpt><trkpt lat="39.91873663192204" lon="8.79956105412112"><ele>262.3333333333333</ele><time>2026-04-27T08:36:12.984Z</time></trkpt><trkpt lat="39.91875297537827" lon="8.79968380146314"><ele>263.1666666666667</ele><time>2026-04-27T08:36:13.984Z</time></trkpt><trkpt lat="39.91874409757975" lon="8.799806666128912"><ele>264.0</ele><time>2026-04-27T08:36:14.984Z</time></trkpt><trkpt lat="39.91874433603584" lon="8.799932596375715"><ele>264.0</ele><time>2026-04-27T08:36:15.984Z</time></trkpt><trkpt lat="39.91874239722677" lon="8.800067312203069"><ele>264.0</ele><time>2026-04-27T08:36:16.984Z</time></trkpt><trkpt lat="39.918737952494425" lon="8.800201551827659"><ele>264.0</ele><time>2026-04-27T08:36:17.984Z</time></trkpt><trkpt lat="39.91873206143047" lon="8.800335355743986"><ele>264.0</ele><time>2026-04-27T08:36:18.984Z</time></trkpt><trkpt lat="39.91872318153975" lon="8.800466819309772"><ele>264.0</ele><time>2026-04-27T08:36:19.984Z</time></trkpt><trkpt lat="39.918701822675416" lon="8.800595260102615"><ele>265.8</ele><time>2026-04-27T08:36:20.984Z</time></trkpt><trkpt lat="39.91866456600196" lon="8.80074057286008"><ele>267.59999999999997</ele><time>2026-04-27T08:36:21.984Z</time></trkpt><trkpt lat="39.918639781200056" lon="8.800858849422832"><ele>269.4</ele><time>2026-04-27T08:36:22.984Z</time></trkpt><trkpt lat="39.91862784605033" lon="8.800996361780205"><ele>271.2</ele><time>2026-04-27T08:36:23.984Z</time></trkpt><trkpt lat="39.91859682558156" lon="8.801115235306613"><ele>273.0</ele><time>2026-04-27T08:36:24.984Z</time></trkpt><trkpt lat="39.91857694811034" lon="8.801234371303657"><ele>274.8</ele><time>2026-04-27T08:36:25.984Z</time></trkpt><trkpt lat="39.918539516473025" lon="8.801363314836848"><ele>276.6</ele><time>2026-04-27T08:36:26.984Z</time></trkpt><trkpt lat="39.91851437413143" lon="8.801484114404166"><ele>278.4</ele><time>2026-04-27T08:36:27.984Z</time></trkpt><trkpt lat="39.91849304132678" lon="8.801621047010554"><ele>280.2</ele><time>2026-04-27T08:36:28.984Z</time></trkpt><trkpt lat="39.918465075937775" lon="8.801754738720854"><ele>282.0</ele><time>2026-04-27T08:36:29.984Z</time></trkpt><trkpt lat="39.91843270072202" lon="8.8018881829454"><ele>283.3333333333333</ele><time>2026-04-27T08:36:30.984Z</time></trkpt><trkpt lat="39.9184045059745" lon="8.80202559328736"><ele>284.6666666666667</ele><time>2026-04-27T08:36:31.984Z</time></trkpt><trkpt lat="39.91838791770638" lon="8.802135641982744"><ele>286.0</ele><time>2026-04-27T08:36:32.984Z</time></trkpt><trkpt lat="39.91837809955594" lon="8.80223677288547"><ele>287.33333333333337</ele><time>2026-04-27T08:36:33.984Z</time></trkpt><trkpt lat="39.91837825032712" lon="8.80233323501644"><ele>288.6666666666667</ele><time>2026-04-27T08:36:34.984Z</time></trkpt><trkpt lat="39.91839886497271" lon="8.802424915703972"><ele>290.0</ele><time>2026-04-27T08:36:35.984Z</time></trkpt><trkpt lat="39.91842795643888" lon="8.802501330474295"><ele>290.0</ele><time>2026-04-27T08:36:36.984Z</time></trkpt><trkpt lat="39.918471301608456" lon="8.802578893909379"><ele>290.0</ele><time>2026-04-27T08:36:37.984Z</time></trkpt><trkpt lat="39.918530759187284" lon="8.802665095358433"><ele>290.0</ele><time>2026-04-27T08:36:38.984Z</time></trkpt><trkpt lat="39.9185843165554" lon="8.802743391238053"><ele>290.0</ele><time>2026-04-27T08:36:39.984Z</time></trkpt><trkpt lat="39.91862732724221" lon="8.802844723703442"><ele>290.0</ele><time>2026-04-27T08:36:40.984Z</time></trkpt><trkpt lat="39.91866814955795" lon="8.80293947871786"><ele>290.0</ele><time>2026-04-27T08:36:41.984Z</time></trkpt><trkpt lat="39.91869859659507" lon="8.803042121493302"><ele>291.83333333333337</ele><time>2026-04-27T08:36:42.984Z</time></trkpt><trkpt lat="39.91871854779893" lon="8.8031414991057"><ele>293.6666666666667</ele><time>2026-04-27T08:36:43.985Z</time></trkpt><trkpt lat="39.91873565830003" lon="8.8032355588705"><ele>295.5</ele><time>2026-04-27T08:36:44.985Z</time></trkpt><trkpt lat="39.91873974374169" lon="8.803387424649538"><ele>297.3333333333333</ele><time>2026-04-27T08:36:46.985Z</time></trkpt><trkpt lat="39.91872563519355" lon="8.803476404089027"><ele>299.16666666666663</ele><time>2026-04-27T08:36:47.985Z</time></trkpt><trkpt lat="39.91870342799543" lon="8.803560479697088"><ele>301.0</ele><time>2026-04-27T08:36:48.985Z</time></trkpt><trkpt lat="39.91867061738793" lon="8.803635396697727"><ele>303.6</ele><time>2026-04-27T08:36:49.985Z</time></trkpt><trkpt lat="39.918633759954915" lon="8.80372431749388"><ele>306.20000000000005</ele><time>2026-04-27T08:36:50.985Z</time></trkpt><trkpt lat="39.918584230897096" lon="8.803831996819873"><ele>308.79999999999995</ele><time>2026-04-27T08:36:51.985Z</time></trkpt><trkpt lat="39.91853805006995" lon="8.803933451745204"><ele>311.4</ele><time>2026-04-27T08:36:52.985Z</time></trkpt><trkpt lat="39.918509413169915" lon="8.804018340197091"><ele>314.0</ele><time>2026-04-27T08:36:53.985Z</time></trkpt><trkpt lat="39.918493885683375" lon="8.804208725081036"><ele>314.0</ele><time>2026-04-27T08:36:55.985Z</time></trkpt><trkpt lat="39.91851242824359" lon="8.804298931253339"><ele>314.0</ele><time>2026-04-27T08:36:56.985Z</time></trkpt><trkpt lat="39.918582855529564" lon="8.804360940731296"><ele>314.0</ele><time>2026-04-27T08:36:57.985Z</time></trkpt><trkpt lat="39.918646949056985" lon="8.80442297436482"><ele>314.0</ele><time>2026-04-27T08:36:58.985Z</time></trkpt><trkpt lat="39.91869812206626" lon="8.804496300755252"><ele>314.0</ele><time>2026-04-27T08:36:59.985Z</time></trkpt><trkpt lat="39.918760780934704" lon="8.804566803188962"><ele>314.0</ele><time>2026-04-27T08:37:00.985Z</time></trkpt><trkpt lat="39.91881205752001" lon="8.804615908630046"><ele>316.6</ele><time>2026-04-27T08:37:01.985Z</time></trkpt><trkpt lat="39.918835634473815" lon="8.804693871052661"><ele>319.2</ele><time>2026-04-27T08:37:02.985Z</time></trkpt><trkpt lat="39.918877105476696" lon="8.804767438776924"><ele>321.8</ele><time>2026-04-27T08:37:03.985Z</time></trkpt><trkpt lat="39.91892635782937" lon="8.804825046100744"><ele>324.40000000000003</ele><time>2026-04-27T08:37:04.985Z</time></trkpt><trkpt lat="39.9190162391072" lon="8.804948574903204"><ele>327.0</ele><time>2026-04-27T08:37:06.985Z</time></trkpt><trkpt lat="39.919146174925444" lon="8.805019092551888"><ele>327.0</ele><time>2026-04-27T08:37:08.985Z</time></trkpt><trkpt lat="39.91922679107006" lon="8.80499647695475"><ele>327.0</ele><time>2026-04-27T08:37:09.985Z</time></trkpt><trkpt lat="39.919300346980485" lon="8.80498182571181"><ele>327.0</ele><time>2026-04-27T08:37:10.985Z</time></trkpt><trkpt lat="39.91937074044527" lon="8.804960052058188"><ele>327.0</ele><time>2026-04-27T08:37:11.985Z</time></trkpt><trkpt lat="39.919441490891664" lon="8.804930013589182"><ele>327.0</ele><time>2026-04-27T08:37:12.985Z</time></trkpt><trkpt lat="39.919509899127036" lon="8.804923926020592"><ele>327.0</ele><time>2026-04-27T08:37:13.985Z</time></trkpt><trkpt lat="39.919575357833004" lon="8.80490847157493"><ele>327.0</ele><time>2026-04-27T08:37:14.985Z</time></trkpt><trkpt lat="39.919643050723316" lon="8.804907078791235"><ele>328.8333333333333</ele><time>2026-04-27T08:37:15.985Z</time></trkpt><trkpt lat="39.91970933960387" lon="8.804923729077979"><ele>330.6666666666667</ele><time>2026-04-27T08:37:16.983Z</time></trkpt><trkpt lat="39.91977483994556" lon="8.80495847975484"><ele>332.5</ele><time>2026-04-27T08:37:17.983Z</time></trkpt><trkpt lat="39.919833682107544" lon="8.805001345936672"><ele>334.33333333333337</ele><time>2026-04-27T08:37:18.983Z</time></trkpt><trkpt lat="39.91994166161919" lon="8.80509656862179"><ele>336.1666666666667</ele><time>2026-04-27T08:37:20.983Z</time></trkpt><trkpt lat="39.920006933130544" lon="8.805130286620525"><ele>338.0</ele><time>2026-04-27T08:37:21.983Z</time></trkpt><trkpt lat="39.92006540366285" lon="8.805192954462262"><ele>342.0</ele><time>2026-04-27T08:37:22.983Z</time></trkpt><trkpt lat="39.920124153816126" lon="8.805242443080047"><ele>346.0</ele><time>2026-04-27T08:37:23.983Z</time></trkpt><trkpt lat="39.920202780989335" lon="8.805277749091815"><ele>350.0</ele><time>2026-04-27T08:37:24.983Z</time></trkpt><trkpt lat="39.92029963420081" lon="8.805300272401142"><ele>354.0</ele><time>2026-04-27T08:37:25.983Z</time></trkpt><trkpt lat="39.920375440217526" lon="8.805311371325576"><ele>358.0</ele><time>2026-04-27T08:37:26.983Z</time></trkpt><trkpt lat="39.920455831380764" lon="8.80534524011934"><ele>362.0</ele><time>2026-04-27T08:37:27.983Z</time></trkpt><trkpt lat="39.92053511862182" lon="8.805368886445729"><ele>362.0</ele><time>2026-04-27T08:37:28.983Z</time></trkpt><trkpt lat="39.92064943060595" lon="8.805428652817483"><ele>362.0</ele><time>2026-04-27T08:37:30.983Z</time></trkpt><trkpt lat="39.92074370940071" lon="8.80551367373609"><ele>362.0</ele><time>2026-04-27T08:37:32.983Z</time></trkpt><trkpt lat="39.92079082310785" lon="8.805576948882102"><ele>362.0</ele><time>2026-04-27T08:37:33.983Z</time></trkpt><trkpt lat="39.920830247058895" lon="8.805644413546426"><ele>362.0</ele><time>2026-04-27T08:37:34.983Z</time></trkpt><trkpt lat="39.92086465981765" lon="8.80573794095516"><ele>362.0</ele><time>2026-04-27T08:37:35.983Z</time></trkpt><trkpt lat="39.92089146158726" lon="8.805833454593696"><ele>362.0</ele><time>2026-04-27T08:37:36.983Z</time></trkpt><trkpt lat="39.92091302242861" lon="8.805917790549076"><ele>362.0</ele><time>2026-04-27T08:37:37.983Z</time></trkpt><trkpt lat="39.92094929623418" lon="8.806086771366047"><ele>362.0</ele><time>2026-04-27T08:37:39.984Z</time></trkpt><trkpt lat="39.92097287289433" lon="8.806183979768846"><ele>362.0</ele><time>2026-04-27T08:37:40.984Z</time></trkpt><trkpt lat="39.92099681573548" lon="8.80626469991853"><ele>362.0</ele><time>2026-04-27T08:37:41.984Z</time></trkpt><trkpt lat="39.921080972277416" lon="8.806373108103314"><ele>362.40000000000003</ele><time>2026-04-27T08:37:43.984Z</time></trkpt><trkpt lat="39.92120280592684" lon="8.806398569261635"><ele>362.8</ele><time>2026-04-27T08:37:45.984Z</time></trkpt><trkpt lat="39.92126883555479" lon="8.806366719254555"><ele>363.2</ele><time>2026-04-27T08:37:46.984Z</time></trkpt><trkpt lat="39.92134575726958" lon="8.806342166744468"><ele>363.6</ele><time>2026-04-27T08:37:47.984Z</time></trkpt><trkpt lat="39.92142057815234" lon="8.806308668119565"><ele>364.0</ele><time>2026-04-27T08:37:48.984Z</time></trkpt><trkpt lat="39.92152940832244" lon="8.806298402463344"><ele>364.0</ele><time>2026-04-27T08:37:50.984Z</time></trkpt><trkpt lat="39.92159252475224" lon="8.80629958572746"><ele>364.0</ele><time>2026-04-27T08:37:53.984Z</time></trkpt><trkpt lat="39.92166610484804" lon="8.806295190699355"><ele>364.0</ele><time>2026-04-27T08:39:01.984Z</time></trkpt><trkpt lat="39.92174248200665" lon="8.806295463628976"><ele>364.0</ele><time>2026-04-27T08:39:03.984Z</time></trkpt><trkpt lat="39.921851852031374" lon="8.8062569213988"><ele>364.0</ele><time>2026-04-27T08:39:05.984Z</time></trkpt><trkpt lat="39.921917919650035" lon="8.806228631628152"><ele>364.0</ele><time>2026-04-27T08:39:06.984Z</time></trkpt><trkpt lat="39.92198254696689" lon="8.806199721708198"><ele>364.0</ele><time>2026-04-27T08:39:07.984Z</time></trkpt><trkpt lat="39.92204496760726" lon="8.806172483150203"><ele>364.0</ele><time>2026-04-27T08:39:08.984Z</time></trkpt><trkpt lat="39.922136425153646" lon="8.806125907977817"><ele>364.0</ele><time>2026-04-27T08:39:10.984Z</time></trkpt><trkpt lat="39.922289804675714" lon="8.806061923739174"><ele>364.0</ele><time>2026-04-27T08:39:12.984Z</time></trkpt><trkpt lat="39.922387116476735" lon="8.806014662017713"><ele>364.0</ele><time>2026-04-27T08:39:13.984Z</time></trkpt><trkpt lat="39.92247236303159" lon="8.805968202679392"><ele>365.2</ele><time>2026-04-27T08:39:14.984Z</time></trkpt><trkpt lat="39.92255844592645" lon="8.805915100736922"><ele>366.4</ele><time>2026-04-27T08:39:15.984Z</time></trkpt><trkpt lat="39.922646638282664" lon="8.805867958309321"><ele>367.6</ele><time>2026-04-27T08:39:16.984Z</time></trkpt><trkpt lat="39.92273943244222" lon="8.805819395687479"><ele>368.8</ele><time>2026-04-27T08:39:17.984Z</time></trkpt><trkpt lat="39.922849250758645" lon="8.80577233981831"><ele>370.0</ele><time>2026-04-27T08:39:18.984Z</time></trkpt><trkpt lat="39.922918161472104" lon="8.80573402743526"><ele>371.6</ele><time>2026-04-27T08:39:19.984Z</time></trkpt><trkpt lat="39.923034313042145" lon="8.805698282626398"><ele>373.2</ele><time>2026-04-27T08:39:21.984Z</time></trkpt><trkpt lat="39.923115121253105" lon="8.805774581908839"><ele>374.79999999999995</ele><time>2026-04-27T08:39:23.982Z</time></trkpt><trkpt lat="39.92315965814736" lon="8.805924734087466"><ele>376.4</ele><time>2026-04-27T08:39:25.982Z</time></trkpt><trkpt lat="39.92320938652872" lon="8.806030179645447"><ele>378.0</ele><time>2026-04-27T08:39:26.982Z</time></trkpt><trkpt lat="39.9232584379691" lon="8.80613733844577"><ele>378.0</ele><time>2026-04-27T08:39:27.982Z</time></trkpt><trkpt lat="39.92330679360538" lon="8.806250182446911"><ele>378.0</ele><time>2026-04-27T08:39:28.982Z</time></trkpt><trkpt lat="39.92335504987601" lon="8.806361815704301"><ele>378.0</ele><time>2026-04-27T08:39:29.982Z</time></trkpt><trkpt lat="39.92342438777704" lon="8.806459320270243"><ele>378.0</ele><time>2026-04-27T08:39:30.982Z</time></trkpt><trkpt lat="39.92348580671586" lon="8.80656431456277"><ele>378.0</ele><time>2026-04-27T08:39:31.982Z</time></trkpt><trkpt lat="39.92355151352908" lon="8.806663169119494"><ele>379.79999999999995</ele><time>2026-04-27T08:39:32.982Z</time></trkpt><trkpt lat="39.92361727485636" lon="8.806760389734578"><ele>381.6</ele><time>2026-04-27T08:39:33.982Z</time></trkpt><trkpt lat="39.92368203905304" lon="8.806855070829581"><ele>383.4</ele><time>2026-04-27T08:39:34.982Z</time></trkpt><trkpt lat="39.92372142134237" lon="8.806969353063609"><ele>385.20000000000005</ele><time>2026-04-27T08:39:35.982Z</time></trkpt><trkpt lat="39.923759325561576" lon="8.807082544424137"><ele>387.0</ele><time>2026-04-27T08:39:36.982Z</time></trkpt><trkpt lat="39.92379380635143" lon="8.807202731393792"><ele>387.0</ele><time>2026-04-27T08:39:37.982Z</time></trkpt><trkpt lat="39.92384108828278" lon="8.80729698111227"><ele>387.0</ele><time>2026-04-27T08:39:38.982Z</time></trkpt><trkpt lat="39.92386817211937" lon="8.80737294706509"><ele>387.0</ele><time>2026-04-27T08:39:39.982Z</time></trkpt><trkpt lat="39.923942702155664" lon="8.807448782428763"><ele>387.0</ele><time>2026-04-27T08:39:41.982Z</time></trkpt><trkpt lat="39.92404156273916" lon="8.807462512043829"><ele>387.0</ele><time>2026-04-27T08:39:43.982Z</time></trkpt><trkpt lat="39.92417278256048" lon="8.807474021633753"><ele>388.0</ele><time>2026-04-27T08:39:45.982Z</time></trkpt><trkpt lat="39.92424649255045" lon="8.807463241626374"><ele>389.0</ele><time>2026-04-27T08:39:46.982Z</time></trkpt><trkpt lat="39.92432562090753" lon="8.807470676950144"><ele>390.0</ele><time>2026-04-27T08:39:47.982Z</time></trkpt><trkpt lat="39.92440940737882" lon="8.807480345664287"><ele>391.0</ele><time>2026-04-27T08:39:48.982Z</time></trkpt><trkpt lat="39.9244784934634" lon="8.807498586338504"><ele>392.0</ele><time>2026-04-27T08:39:49.982Z</time></trkpt><trkpt lat="39.92454267800955" lon="8.807470675413832"><ele>393.0</ele><time>2026-04-27T08:39:50.982Z</time></trkpt><trkpt lat="39.92462871539811" lon="8.80746551862041"><ele>393.0</ele><time>2026-04-27T08:39:51.982Z</time></trkpt><trkpt lat="39.92471713831437" lon="8.807393907192731"><ele>393.0</ele><time>2026-04-27T08:39:52.982Z</time></trkpt><trkpt lat="39.92481297687656" lon="8.807360590546953"><ele>393.0</ele><time>2026-04-27T08:39:53.982Z</time></trkpt><trkpt lat="39.9248820594422" lon="8.807334929403451"><ele>393.0</ele><time>2026-04-27T08:39:54.982Z</time></trkpt><trkpt lat="39.92494846848592" lon="8.807348338439322"><ele>393.0</ele><time>2026-04-27T08:39:55.982Z</time></trkpt><trkpt lat="39.9250429999687" lon="8.807399003104129"><ele>393.0</ele><time>2026-04-27T08:39:56.982Z</time></trkpt><trkpt lat="39.92515729174224" lon="8.807445344032766"><ele>393.0</ele><time>2026-04-27T08:39:57.982Z</time></trkpt><trkpt lat="39.92527011622481" lon="8.807513271614068"><ele>393.0</ele><time>2026-04-27T08:39:58.982Z</time></trkpt><trkpt lat="39.92537389992281" lon="8.807595511625044"><ele>393.0</ele><time>2026-04-27T08:39:59.982Z</time></trkpt><trkpt lat="39.925471995450415" lon="8.80767883176229"><ele>393.0</ele><time>2026-04-27T08:40:00.982Z</time></trkpt><trkpt lat="39.92555847445166" lon="8.807773103039402"><ele>392.0</ele><time>2026-04-27T08:40:01.982Z</time></trkpt><trkpt lat="39.92565178963445" lon="8.80786186663444"><ele>391.0</ele><time>2026-04-27T08:40:02.982Z</time></trkpt><trkpt lat="39.9257352719698" lon="8.807961344088227"><ele>390.0</ele><time>2026-04-27T08:40:03.982Z</time></trkpt><trkpt lat="39.92581622808475" lon="8.808063952193386"><ele>389.0</ele><time>2026-04-27T08:40:04.982Z</time></trkpt><trkpt lat="39.925901068719625" lon="8.808155904324616"><ele>390.3333333333333</ele><time>2026-04-27T08:40:05.982Z</time></trkpt><trkpt lat="39.92596074977382" lon="8.808207315699525"><ele>391.66666666666663</ele><time>2026-04-27T08:40:06.982Z</time></trkpt><trkpt lat="39.92603914998532" lon="8.808246319669546"><ele>393.0</ele><time>2026-04-27T08:40:09.982Z</time></trkpt><trkpt lat="39.92611050954538" lon="8.808273445353286"><ele>394.33333333333337</ele><time>2026-04-27T08:40:13.982Z</time></trkpt><trkpt lat="39.92616709816041" lon="8.808311900445904"><ele>395.6666666666667</ele><time>2026-04-27T08:40:16.982Z</time></trkpt><trkpt lat="39.926245447862776" lon="8.808334181814644"><ele>397.0</ele><time>2026-04-27T08:40:18.982Z</time></trkpt><trkpt lat="39.92631458188261" lon="8.808421725158615"><ele>397.57142857142856</ele><time>2026-04-27T08:40:20.982Z</time></trkpt><trkpt lat="39.92634955129843" lon="8.808494433970079"><ele>398.1428571428571</ele><time>2026-04-27T08:40:21.982Z</time></trkpt><trkpt lat="39.92636697289108" lon="8.808576030922794"><ele>398.7142857142857</ele><time>2026-04-27T08:40:22.982Z</time></trkpt><trkpt lat="39.926382673417464" lon="8.808659950778688"><ele>399.2857142857143</ele><time>2026-04-27T08:40:23.982Z</time></trkpt><trkpt lat="39.926395769605705" lon="8.808747532048356"><ele>399.8571428571429</ele><time>2026-04-27T08:40:24.982Z</time></trkpt><trkpt lat="39.92642523791929" lon="8.80885096294716"><ele>400.42857142857144</ele><time>2026-04-27T08:40:25.982Z</time></trkpt><trkpt lat="39.92644696942167" lon="8.808946067856775"><ele>401.0</ele><time>2026-04-27T08:40:26.982Z</time></trkpt><trkpt lat="39.926471737915314" lon="8.809055324689176"><ele>400.99999999999994</ele><time>2026-04-27T08:40:27.982Z</time></trkpt><trkpt lat="39.926486779410105" lon="8.809163882040822"><ele>401.0</ele><time>2026-04-27T08:40:28.982Z</time></trkpt><trkpt lat="39.9264891481144" lon="8.809277602724542"><ele>401.0</ele><time>2026-04-27T08:40:29.982Z</time></trkpt><trkpt lat="39.92649672205971" lon="8.809379156951353"><ele>401.0</ele><time>2026-04-27T08:40:30.982Z</time></trkpt><trkpt lat="39.92651617136172" lon="8.809479940934786"><ele>400.99999999999994</ele><time>2026-04-27T08:40:31.982Z</time></trkpt><trkpt lat="39.92654190411807" lon="8.80958284986003"><ele>401.0</ele><time>2026-04-27T08:40:32.982Z</time></trkpt><trkpt lat="39.926586393137" lon="8.809667996532216"><ele>401.66666666666663</ele><time>2026-04-27T08:40:33.982Z</time></trkpt><trkpt lat="39.926636594333736" lon="8.809753989845952"><ele>402.3333333333333</ele><time>2026-04-27T08:40:34.982Z</time></trkpt><trkpt lat="39.926691311817684" lon="8.80982928378324"><ele>403.0</ele><time>2026-04-27T08:40:35.982Z</time></trkpt><trkpt lat="39.92674639938943" lon="8.80990868785098"><ele>403.66666666666663</ele><time>2026-04-27T08:40:36.983Z</time></trkpt><trkpt lat="39.92680641080018" lon="8.81000334653616"><ele>404.3333333333333</ele><time>2026-04-27T08:40:37.983Z</time></trkpt><trkpt lat="39.92685410796822" lon="8.810069500974105"><ele>405.0</ele><time>2026-04-27T08:40:38.983Z</time></trkpt><trkpt lat="39.92690327403537" lon="8.810152421400712"><ele>408.0</ele><time>2026-04-27T08:40:39.983Z</time></trkpt><trkpt lat="39.92697570338912" lon="8.81024324490173"><ele>411.0</ele><time>2026-04-27T08:40:40.983Z</time></trkpt><trkpt lat="39.92703851785871" lon="8.810336118951062"><ele>414.0</ele><time>2026-04-27T08:40:41.983Z</time></trkpt><trkpt lat="39.92710569842228" lon="8.81041274474477"><ele>417.0</ele><time>2026-04-27T08:40:42.983Z</time></trkpt><trkpt lat="39.927168226536544" lon="8.810500874113115"><ele>420.0</ele><time>2026-04-27T08:40:43.983Z</time></trkpt><trkpt lat="39.92723880139107" lon="8.810589102137639"><ele>420.0</ele><time>2026-04-27T08:40:44.983Z</time></trkpt><trkpt lat="39.927309709489826" lon="8.810675936836072"><ele>420.0</ele><time>2026-04-27T08:40:45.983Z</time></trkpt><trkpt lat="39.92737348519092" lon="8.810754009924292"><ele>420.0</ele><time>2026-04-27T08:40:46.983Z</time></trkpt><trkpt lat="39.92743459167056" lon="8.810864612245389"><ele>420.0</ele><time>2026-04-27T08:40:47.983Z</time></trkpt><trkpt lat="39.9274646221163" lon="8.810946800680336"><ele>420.0</ele><time>2026-04-27T08:40:48.983Z</time></trkpt><trkpt lat="39.92747935293097" lon="8.811030130889606"><ele>420.0</ele><time>2026-04-27T08:40:49.983Z</time></trkpt><trkpt lat="39.9274357825851" lon="8.811174549846804"><ele>421.6666666666667</ele><time>2026-04-27T08:40:51.983Z</time></trkpt><trkpt lat="39.92741044915331" lon="8.81127327357392"><ele>423.33333333333337</ele><time>2026-04-27T08:40:52.983Z</time></trkpt><trkpt lat="39.92739666825892" lon="8.811380665485245"><ele>425.0</ele><time>2026-04-27T08:40:53.983Z</time></trkpt><trkpt lat="39.927341412438665" lon="8.81147304049874"><ele>426.6666666666667</ele><time>2026-04-27T08:40:54.983Z</time></trkpt><trkpt lat="39.927259747098134" lon="8.81157273911286"><ele>428.33333333333337</ele><time>2026-04-27T08:40:56.983Z</time></trkpt><trkpt lat="39.92721371060875" lon="8.811654421574485"><ele>430.0</ele><time>2026-04-27T08:40:57.983Z</time></trkpt><trkpt lat="39.927148346236635" lon="8.811737777697909"><ele>430.00000000000006</ele><time>2026-04-27T08:40:58.983Z</time></trkpt><trkpt lat="39.92708785524128" lon="8.811798185861495"><ele>430.0</ele><time>2026-04-27T08:40:59.983Z</time></trkpt><trkpt lat="39.92704627406385" lon="8.811882935483874"><ele>430.0</ele><time>2026-04-27T08:41:00.983Z</time></trkpt><trkpt lat="39.927024885094326" lon="8.811990384065682"><ele>430.0</ele><time>2026-04-27T08:41:01.983Z</time></trkpt><trkpt lat="39.927026848865566" lon="8.812099453643674"><ele>430.00000000000006</ele><time>2026-04-27T08:41:02.983Z</time></trkpt><trkpt lat="39.9270377395788" lon="8.812189502455352"><ele>430.0</ele><time>2026-04-27T08:41:03.983Z</time></trkpt><trkpt lat="39.927065356197744" lon="8.812318025262618"><ele>431.4</ele><time>2026-04-27T08:41:04.983Z</time></trkpt><trkpt lat="39.92710522630243" lon="8.812400296715616"><ele>432.8</ele><time>2026-04-27T08:41:05.983Z</time></trkpt><trkpt lat="39.92712538332476" lon="8.812507371432005"><ele>434.20000000000005</ele><time>2026-04-27T08:41:06.983Z</time></trkpt><trkpt lat="39.92718291020836" lon="8.812636385087567"><ele>435.6</ele><time>2026-04-27T08:41:07.983Z</time></trkpt><trkpt lat="39.92721476460443" lon="8.812788457020924"><ele>437.0</ele><time>2026-04-27T08:41:08.983Z</time></trkpt><trkpt lat="39.9272690144839" lon="8.812936285055118"><ele>437.20000000000005</ele><time>2026-04-27T08:41:09.983Z</time></trkpt><trkpt lat="39.92732590904034" lon="8.813056710061579"><ele>437.40000000000003</ele><time>2026-04-27T08:41:10.983Z</time></trkpt><trkpt lat="39.927365970038274" lon="8.813171191084251"><ele>437.59999999999997</ele><time>2026-04-27T08:41:11.983Z</time></trkpt><trkpt lat="39.92742881945974" lon="8.813257276397712"><ele>437.79999999999995</ele><time>2026-04-27T08:41:12.983Z</time></trkpt><trkpt lat="39.927495261876395" lon="8.81334071776855"><ele>438.0</ele><time>2026-04-27T08:41:13.983Z</time></trkpt><trkpt lat="39.92756987487852" lon="8.813407036167227"><ele>440.25</ele><time>2026-04-27T08:41:14.983Z</time></trkpt><trkpt lat="39.9276602331399" lon="8.813500114361233"><ele>442.5</ele><time>2026-04-27T08:41:15.983Z</time></trkpt><trkpt lat="39.927744620385255" lon="8.813608607119914"><ele>444.75</ele><time>2026-04-27T08:41:16.983Z</time></trkpt><trkpt lat="39.9278314658628" lon="8.813710587228785"><ele>447.0</ele><time>2026-04-27T08:41:17.983Z</time></trkpt><trkpt lat="39.92792077256378" lon="8.813810647367358"><ele>447.0</ele><time>2026-04-27T08:41:18.983Z</time></trkpt><trkpt lat="39.92802030697655" lon="8.81390185668054"><ele>447.0</ele><time>2026-04-27T08:41:19.983Z</time></trkpt><trkpt lat="39.92812209833236" lon="8.813983106124537"><ele>447.0</ele><time>2026-04-27T08:41:20.983Z</time></trkpt><trkpt lat="39.92822977628201" lon="8.814054349885875"><ele>447.0</ele><time>2026-04-27T08:41:21.983Z</time></trkpt><trkpt lat="39.92833817722341" lon="8.814126639051366"><ele>449.0</ele><time>2026-04-27T08:41:22.983Z</time></trkpt><trkpt lat="39.92843590538797" lon="8.814172284811933"><ele>451.00000000000006</ele><time>2026-04-27T08:41:23.983Z</time></trkpt><trkpt lat="39.92853603406333" lon="8.814205188527431"><ele>453.00000000000006</ele><time>2026-04-27T08:41:24.983Z</time></trkpt><trkpt lat="39.92861357782193" lon="8.814225006214276"><ele>455.0</ele><time>2026-04-27T08:41:25.983Z</time></trkpt><trkpt lat="39.92868322683994" lon="8.814211880685175"><ele>457.0</ele><time>2026-04-27T08:41:26.983Z</time></trkpt><trkpt lat="39.92878517784343" lon="8.814197434582647"><ele>457.0</ele><time>2026-04-27T08:41:27.983Z</time></trkpt><trkpt lat="39.92888735148835" lon="8.814170692532526"><ele>457.0</ele><time>2026-04-27T08:41:28.981Z</time></trkpt><trkpt lat="39.92900353798567" lon="8.814144263073047"><ele>457.0</ele><time>2026-04-27T08:41:29.981Z</time></trkpt><trkpt lat="39.92913140656752" lon="8.814116401469446"><ele>457.0</ele><time>2026-04-27T08:41:30.981Z</time></trkpt><trkpt lat="39.92926266303473" lon="8.814091115315497"><ele>459.25</ele><time>2026-04-27T08:41:31.981Z</time></trkpt><trkpt lat="39.92938714294317" lon="8.814085025621097"><ele>461.5</ele><time>2026-04-27T08:41:32.981Z</time></trkpt><trkpt lat="39.92949802932441" lon="8.814094488002432"><ele>463.75</ele><time>2026-04-27T08:41:33.981Z</time></trkpt><trkpt lat="39.929614612213534" lon="8.814130771699793"><ele>466.0</ele><time>2026-04-27T08:41:34.981Z</time></trkpt><trkpt lat="39.929724384899856" lon="8.814167635215448"><ele>466.0</ele><time>2026-04-27T08:41:35.981Z</time></trkpt><trkpt lat="39.929823038791255" lon="8.814229727891185"><ele>466.0</ele><time>2026-04-27T08:41:36.981Z</time></trkpt><trkpt lat="39.92993292248652" lon="8.814289339320766"><ele>466.0</ele><time>2026-04-27T08:41:37.981Z</time></trkpt><trkpt lat="39.93004209393705" lon="8.814385833619214"><ele>466.0</ele><time>2026-04-27T08:41:38.981Z</time></trkpt><trkpt lat="39.93013866806096" lon="8.814492300484863"><ele>470.4</ele><time>2026-04-27T08:41:39.981Z</time></trkpt><trkpt lat="39.93025124190965" lon="8.814578228468337"><ele>474.8</ele><time>2026-04-27T08:41:40.981Z</time></trkpt><trkpt lat="39.930338886327974" lon="8.814661331287997"><ele>479.19999999999993</ele><time>2026-04-27T08:41:41.981Z</time></trkpt><trkpt lat="39.93039472668618" lon="8.814740713585365"><ele>483.59999999999997</ele><time>2026-04-27T08:41:42.981Z</time></trkpt><trkpt lat="39.93040664131358" lon="8.814853350774195"><ele>488.0</ele><time>2026-04-27T08:41:43.981Z</time></trkpt><trkpt lat="39.9304320612497" lon="8.814967279843806"><ele>488.0</ele><time>2026-04-27T08:41:44.981Z</time></trkpt><trkpt lat="39.93045172254275" lon="8.815087236445668"><ele>487.99999999999994</ele><time>2026-04-27T08:41:45.981Z</time></trkpt><trkpt lat="39.93046368167946" lon="8.815209861036713"><ele>487.99999999999994</ele><time>2026-04-27T08:41:46.981Z</time></trkpt><trkpt lat="39.930461866347336" lon="8.815322494585592"><ele>488.0</ele><time>2026-04-27T08:41:47.981Z</time></trkpt><trkpt lat="39.93043805886331" lon="8.815452954648073"><ele>488.0</ele><time>2026-04-27T08:41:48.981Z</time></trkpt><trkpt lat="39.93041026103166" lon="8.815577857055752"><ele>491.79999999999995</ele><time>2026-04-27T08:41:49.981Z</time></trkpt><trkpt lat="39.93036962096967" lon="8.815700931961013"><ele>495.59999999999997</ele><time>2026-04-27T08:41:50.981Z</time></trkpt><trkpt lat="39.93031471944059" lon="8.815818904541517"><ele>499.40000000000003</ele><time>2026-04-27T08:41:51.981Z</time></trkpt><trkpt lat="39.930252339868886" lon="8.815927097218509"><ele>503.20000000000005</ele><time>2026-04-27T08:41:52.981Z</time></trkpt><trkpt lat="39.930181402693414" lon="8.816059012014886"><ele>507.0</ele><time>2026-04-27T08:41:53.981Z</time></trkpt><trkpt lat="39.93016224677003" lon="8.816186790611857"><ele>510.6666666666667</ele><time>2026-04-27T08:41:54.981Z</time></trkpt><trkpt lat="39.93013270448569" lon="8.816277002275235"><ele>514.3333333333334</ele><time>2026-04-27T08:41:55.981Z</time></trkpt><trkpt lat="39.930169418358744" lon="8.816381681193437"><ele>518.0</ele><time>2026-04-27T08:41:56.981Z</time></trkpt><trkpt lat="39.93018658693505" lon="8.816479570506054"><ele>521.6666666666667</ele><time>2026-04-27T08:41:57.981Z</time></trkpt><trkpt lat="39.930200454279635" lon="8.816597873288009"><ele>525.3333333333334</ele><time>2026-04-27T08:41:58.981Z</time></trkpt><trkpt lat="39.930213830680216" lon="8.816695996243094"><ele>529.0</ele><time>2026-04-27T08:41:59.981Z</time></trkpt><trkpt lat="39.93022333958128" lon="8.816797085721209"><ele>531.5</ele><time>2026-04-27T08:42:00.981Z</time></trkpt><trkpt lat="39.93023124332685" lon="8.81690398565139"><ele>534.0</ele><time>2026-04-27T08:42:01.981Z</time></trkpt><trkpt lat="39.93023236180007" lon="8.816996621774827"><ele>536.5</ele><time>2026-04-27T08:42:02.981Z</time></trkpt><trkpt lat="39.93023526713335" lon="8.817093213550123"><ele>539.0</ele><time>2026-04-27T08:42:03.981Z</time></trkpt><trkpt lat="39.93022877361903" lon="8.817178102197854"><ele>541.5</ele><time>2026-04-27T08:42:04.981Z</time></trkpt><trkpt lat="39.93025667581256" lon="8.817308423168688"><ele>544.0</ele><time>2026-04-27T08:42:06.981Z</time></trkpt><trkpt lat="39.930284270701485" lon="8.81738380660746"><ele>544.0</ele><time>2026-04-27T08:42:07.981Z</time></trkpt><trkpt lat="39.930314853529765" lon="8.81746940539485"><ele>544.0</ele><time>2026-04-27T08:42:08.981Z</time></trkpt><trkpt lat="39.930360341049266" lon="8.817578561162119"><ele>544.0</ele><time>2026-04-27T08:42:09.981Z</time></trkpt><trkpt lat="39.93039198361317" lon="8.817691075229993"><ele>544.0</ele><time>2026-04-27T08:42:10.981Z</time></trkpt><trkpt lat="39.930441960374644" lon="8.81774883394795"><ele>544.0</ele><time>2026-04-27T08:42:11.981Z</time></trkpt><trkpt lat="39.93047729641251" lon="8.817856398374131"><ele>544.0</ele><time>2026-04-27T08:42:12.981Z</time></trkpt><trkpt lat="39.93051305065784" lon="8.817967973564356"><ele>544.6</ele><time>2026-04-27T08:42:13.981Z</time></trkpt><trkpt lat="39.93054378461044" lon="8.818088001554328"><ele>545.2</ele><time>2026-04-27T08:42:14.981Z</time></trkpt><trkpt lat="39.930540451947294" lon="8.81820425128305"><ele>545.8000000000001</ele><time>2026-04-27T08:42:15.981Z</time></trkpt><trkpt lat="39.930545122030374" lon="8.818308532525581"><ele>546.4</ele><time>2026-04-27T08:42:16.981Z</time></trkpt><trkpt lat="39.93051668448994" lon="8.81846016679688"><ele>547.0</ele><time>2026-04-27T08:42:18.982Z</time></trkpt><trkpt lat="39.93042553240204" lon="8.818570727156247"><ele>546.8000000000001</ele><time>2026-04-27T08:42:20.982Z</time></trkpt><trkpt lat="39.93036481208383" lon="8.818651129069814"><ele>546.6</ele><time>2026-04-27T08:42:21.982Z</time></trkpt><trkpt lat="39.93029944835479" lon="8.8187322954081"><ele>546.4000000000001</ele><time>2026-04-27T08:42:22.982Z</time></trkpt><trkpt lat="39.93022127549972" lon="8.818796771804301"><ele>546.2</ele><time>2026-04-27T08:42:23.982Z</time></trkpt><trkpt lat="39.930133524769936" lon="8.818859213896173"><ele>546.0</ele><time>2026-04-27T08:42:24.982Z</time></trkpt><trkpt lat="39.930049266164694" lon="8.818912208861198"><ele>546.0</ele><time>2026-04-27T08:42:25.982Z</time></trkpt><trkpt lat="39.92996766775346" lon="8.818960810357163"><ele>546.0</ele><time>2026-04-27T08:42:26.982Z</time></trkpt><trkpt lat="39.92987298394512" lon="8.819004595495091"><ele>546.0</ele><time>2026-04-27T08:42:27.982Z</time></trkpt><trkpt lat="39.92977119744968" lon="8.819045091198713"><ele>546.0</ele><time>2026-04-27T08:42:28.982Z</time></trkpt><trkpt lat="39.9296813603377" lon="8.819080145012665"><ele>546.0</ele><time>2026-04-27T08:42:29.982Z</time></trkpt><trkpt lat="39.929600972986755" lon="8.819133826162814"><ele>546.0</ele><time>2026-04-27T08:42:30.982Z</time></trkpt><trkpt lat="39.92953626092126" lon="8.819156512078186"><ele>546.0</ele><time>2026-04-27T08:42:31.982Z</time></trkpt><trkpt lat="39.92945217026508" lon="8.819202376369873"><ele>546.0</ele><time>2026-04-27T08:42:33.982Z</time></trkpt><trkpt lat="39.92939959498918" lon="8.819261938258203"><ele>546.0</ele><time>2026-04-27T08:42:34.982Z</time></trkpt><trkpt lat="39.92935372554029" lon="8.819319810420158"><ele>546.0</ele><time>2026-04-27T08:42:35.982Z</time></trkpt><trkpt lat="39.929277956965024" lon="8.819410942310206"><ele>546.0</ele><time>2026-04-27T08:42:37.982Z</time></trkpt><trkpt lat="39.92921189786147" lon="8.819484827715529"><ele>550.2</ele><time>2026-04-27T08:42:39.982Z</time></trkpt><trkpt lat="39.929127902328126" lon="8.819619788512249"><ele>554.4000000000001</ele><time>2026-04-27T08:42:41.982Z</time></trkpt><trkpt lat="39.92908612002906" lon="8.819697891041061"><ele>558.6</ele><time>2026-04-27T08:42:42.982Z</time></trkpt><trkpt lat="39.92902899776642" lon="8.819744876336854"><ele>562.8000000000001</ele><time>2026-04-27T08:42:43.982Z</time></trkpt><trkpt lat="39.92893334188273" lon="8.819848389355851"><ele>567.0</ele><time>2026-04-27T08:42:45.982Z</time></trkpt><trkpt lat="39.92885708715415" lon="8.819988638878957"><ele>567.0</ele><time>2026-04-27T08:42:47.982Z</time></trkpt><trkpt lat="39.92878714171299" lon="8.820095661585016"><ele>567.0</ele><time>2026-04-27T08:42:49.982Z</time></trkpt><trkpt lat="39.928760080659" lon="8.820264070395515"><ele>567.0</ele><time>2026-04-27T08:42:51.982Z</time></trkpt><trkpt lat="39.928746901172644" lon="8.820357230458997"><ele>567.0</ele><time>2026-04-27T08:42:52.982Z</time></trkpt><trkpt lat="39.92874813992101" lon="8.820448605841841"><ele>567.0</ele><time>2026-04-27T08:42:53.982Z</time></trkpt><trkpt lat="39.92876162537681" lon="8.820557458043707"><ele>567.1666666666666</ele><time>2026-04-27T08:42:54.982Z</time></trkpt><trkpt lat="39.928783506044546" lon="8.820663699215245"><ele>567.3333333333334</ele><time>2026-04-27T08:42:55.982Z</time></trkpt><trkpt lat="39.92881236056275" lon="8.820770338020386"><ele>567.5</ele><time>2026-04-27T08:42:56.982Z</time></trkpt><trkpt lat="39.92883290442245" lon="8.820912862950557"><ele>567.6666666666667</ele><time>2026-04-27T08:42:58.982Z</time></trkpt><trkpt lat="39.92889640133615" lon="8.820951109493414"><ele>567.8333333333334</ele><time>2026-04-27T08:42:59.982Z</time></trkpt><trkpt lat="39.928966359674625" lon="8.820986979403212"><ele>568.0</ele><time>2026-04-27T08:43:00.982Z</time></trkpt><trkpt lat="39.92903186696836" lon="8.821012157368514"><ele>568.0</ele><time>2026-04-27T08:43:01.982Z</time></trkpt><trkpt lat="39.929099575951106" lon="8.821023949830566"><ele>568.0</ele><time>2026-04-27T08:43:02.982Z</time></trkpt><trkpt lat="39.92917338371756" lon="8.82104217404344"><ele>568.0</ele><time>2026-04-27T08:43:03.982Z</time></trkpt><trkpt lat="39.92925392184007" lon="8.821058364855272"><ele>568.0</ele><time>2026-04-27T08:43:04.982Z</time></trkpt><trkpt lat="39.9293354148793" lon="8.821079931949802"><ele>568.0</ele><time>2026-04-27T08:43:05.982Z</time></trkpt><trkpt lat="39.92940450554693" lon="8.821134300467028"><ele>568.0</ele><time>2026-04-27T08:43:06.982Z</time></trkpt><trkpt lat="39.92947713269853" lon="8.82118521169817"><ele>573.8333333333334</ele><time>2026-04-27T08:43:07.982Z</time></trkpt><trkpt lat="39.9295254704371" lon="8.82125401282685"><ele>579.6666666666667</ele><time>2026-04-27T08:43:08.982Z</time></trkpt><trkpt lat="39.92958270116645" lon="8.821332265756858"><ele>585.5</ele><time>2026-04-27T08:43:09.982Z</time></trkpt><trkpt lat="39.929641492414554" lon="8.821421254684843"><ele>591.3333333333334</ele><time>2026-04-27T08:43:10.982Z</time></trkpt><trkpt lat="39.92969045923337" lon="8.821513434613339"><ele>597.1666666666666</ele><time>2026-04-27T08:43:11.982Z</time></trkpt><trkpt lat="39.9297429961786" lon="8.821616915394852"><ele>603.0</ele><time>2026-04-27T08:43:12.982Z</time></trkpt><trkpt lat="39.92978879627965" lon="8.821707533287805"><ele>603.0</ele><time>2026-04-27T08:43:13.982Z</time></trkpt><trkpt lat="39.929836850544206" lon="8.821801138701069"><ele>603.0</ele><time>2026-04-27T08:43:14.982Z</time></trkpt><trkpt lat="39.92987486928786" lon="8.821896707159711"><ele>603.0</ele><time>2026-04-27T08:43:15.982Z</time></trkpt><trkpt lat="39.92993543493045" lon="8.822029080165406"><ele>603.0</ele><time>2026-04-27T08:43:17.982Z</time></trkpt><trkpt lat="39.929972942971496" lon="8.822102959150062"><ele>603.0</ele><time>2026-04-27T08:43:18.982Z</time></trkpt><trkpt lat="39.930008323815116" lon="8.822193081081334"><ele>603.0</ele><time>2026-04-27T08:43:19.982Z</time></trkpt><trkpt lat="39.930063249119726" lon="8.822272362594092"><ele>604.1999999999999</ele><time>2026-04-27T08:43:20.982Z</time></trkpt><trkpt lat="39.93013342752048" lon="8.822363444810508"><ele>605.4</ele><time>2026-04-27T08:43:21.982Z</time></trkpt><trkpt lat="39.93020338259939" lon="8.822431765432244"><ele>606.5999999999999</ele><time>2026-04-27T08:43:22.982Z</time></trkpt><trkpt lat="39.93027517418847" lon="8.82250157158001"><ele>607.8</ele><time>2026-04-27T08:43:23.982Z</time></trkpt><trkpt lat="39.930353162165936" lon="8.822587812909465"><ele>609.0</ele><time>2026-04-27T08:43:24.982Z</time></trkpt><trkpt lat="39.93043507438403" lon="8.82267064708391"><ele>609.0</ele><time>2026-04-27T08:43:25.982Z</time></trkpt><trkpt lat="39.93051052012276" lon="8.822740221738178"><ele>609.0</ele><time>2026-04-27T08:43:26.982Z</time></trkpt><trkpt lat="39.93059249193166" lon="8.822818957953091"><ele>609.0</ele><time>2026-04-27T08:43:27.982Z</time></trkpt><trkpt lat="39.93065483261374" lon="8.822917098712775"><ele>609.0</ele><time>2026-04-27T08:43:28.982Z</time></trkpt><trkpt lat="39.93070334688081" lon="8.822974914655186"><ele>609.0</ele><time>2026-04-27T08:43:29.982Z</time></trkpt><trkpt lat="39.93076862299083" lon="8.823043282270275"><ele>609.0</ele><time>2026-04-27T08:43:30.982Z</time></trkpt><trkpt lat="39.93084388334752" lon="8.823115508831384"><ele>611.4</ele><time>2026-04-27T08:43:31.982Z</time></trkpt><trkpt lat="39.9308956730079" lon="8.82317565138069"><ele>613.8</ele><time>2026-04-27T08:43:32.982Z</time></trkpt><trkpt lat="39.93093357754853" lon="8.82329103787355"><ele>616.2</ele><time>2026-04-27T08:43:34.98Z</time></trkpt><trkpt lat="39.93089835909502" lon="8.82344629296454"><ele>618.6</ele><time>2026-04-27T08:43:36.98Z</time></trkpt><trkpt lat="39.930869731943666" lon="8.823539534576115"><ele>621.0</ele><time>2026-04-27T08:43:37.98Z</time></trkpt><trkpt lat="39.93082564167631" lon="8.823642824668488"><ele>621.0</ele><time>2026-04-27T08:43:38.98Z</time></trkpt><trkpt lat="39.9307806279219" lon="8.823742273544887"><ele>621.0</ele><time>2026-04-27T08:43:39.98Z</time></trkpt><trkpt lat="39.930730866281685" lon="8.823862522992277"><ele>621.0</ele><time>2026-04-27T08:43:40.98Z</time></trkpt><trkpt lat="39.93068028008487" lon="8.823973327602468"><ele>621.0</ele><time>2026-04-27T08:43:41.98Z</time></trkpt><trkpt lat="39.930633239262896" lon="8.824098160279878"><ele>621.0</ele><time>2026-04-27T08:43:42.98Z</time></trkpt><trkpt lat="39.930589515026234" lon="8.824216740329824"><ele>624.6</ele><time>2026-04-27T08:43:43.98Z</time></trkpt><trkpt lat="39.93054878349" lon="8.824342116369973"><ele>628.2</ele><time>2026-04-27T08:43:44.98Z</time></trkpt><trkpt lat="39.930511863518056" lon="8.824467564668545"><ele>631.8</ele><time>2026-04-27T08:43:45.98Z</time></trkpt><trkpt lat="39.93047971406194" lon="8.824599133865847"><ele>635.4</ele><time>2026-04-27T08:43:46.98Z</time></trkpt><trkpt lat="39.930457785026476" lon="8.824724823633435"><ele>639.0</ele><time>2026-04-27T08:43:47.98Z</time></trkpt><trkpt lat="39.930437344446496" lon="8.82485360244469"><ele>639.0</ele><time>2026-04-27T08:43:48.98Z</time></trkpt><trkpt lat="39.93041446899944" lon="8.82498595099013"><ele>639.0</ele><time>2026-04-27T08:43:49.98Z</time></trkpt><trkpt lat="39.93038219083468" lon="8.825115741808641"><ele>639.0</ele><time>2026-04-27T08:43:50.98Z</time></trkpt><trkpt lat="39.93030157003422" lon="8.825227263234458"><ele>639.0</ele><time>2026-04-27T08:43:51.98Z</time></trkpt><trkpt lat="39.93026766086939" lon="8.825358001859621"><ele>639.0</ele><time>2026-04-27T08:43:52.98Z</time></trkpt><trkpt lat="39.93023796182689" lon="8.825481658555468"><ele>639.8</ele><time>2026-04-27T08:43:53.98Z</time></trkpt><trkpt lat="39.93020776686684" lon="8.825589009212477"><ele>640.5999999999999</ele><time>2026-04-27T08:43:54.98Z</time></trkpt><trkpt lat="39.93016697013201" lon="8.825691351410471"><ele>641.4</ele><time>2026-04-27T08:43:55.98Z</time></trkpt><trkpt lat="39.93011018264285" lon="8.825802316070405"><ele>642.1999999999999</ele><time>2026-04-27T08:43:56.98Z</time></trkpt><trkpt lat="39.93004806497458" lon="8.825919593215174"><ele>643.0</ele><time>2026-04-27T08:43:57.98Z</time></trkpt><trkpt lat="39.929999593273486" lon="8.826046853610356"><ele>643.0</ele><time>2026-04-27T08:43:58.98Z</time></trkpt><trkpt lat="39.92993577157733" lon="8.82615316610776"><ele>643.0</ele><time>2026-04-27T08:43:59.98Z</time></trkpt><trkpt lat="39.92989696727829" lon="8.826268476850995"><ele>643.0</ele><time>2026-04-27T08:44:00.98Z</time></trkpt><trkpt lat="39.92986041662748" lon="8.826366893468714"><ele>643.0</ele><time>2026-04-27T08:44:01.98Z</time></trkpt><trkpt lat="39.92978872684371" lon="8.82644598792071"><ele>643.0</ele><time>2026-04-27T08:44:02.98Z</time></trkpt><trkpt lat="39.92972314726069" lon="8.826528442155146"><ele>643.0</ele><time>2026-04-27T08:44:03.98Z</time></trkpt><trkpt lat="39.929650061420624" lon="8.826611595803344"><ele>643.0</ele><time>2026-04-27T08:44:04.98Z</time></trkpt><trkpt lat="39.9295727474974" lon="8.826698509447542"><ele>643.0</ele><time>2026-04-27T08:44:05.98Z</time></trkpt><trkpt lat="39.92949798795033" lon="8.826781253736739"><ele>643.0</ele><time>2026-04-27T08:44:06.98Z</time></trkpt><trkpt lat="39.92942720236167" lon="8.826891196809731"><ele>643.0</ele><time>2026-04-27T08:44:07.98Z</time></trkpt><trkpt lat="39.929348920584964" lon="8.826991841182915"><ele>642.25</ele><time>2026-04-27T08:44:08.98Z</time></trkpt><trkpt lat="39.92927330925983" lon="8.827102266549842"><ele>641.5</ele><time>2026-04-27T08:44:09.98Z</time></trkpt><trkpt lat="39.92920468251482" lon="8.827224423925893"><ele>640.75</ele><time>2026-04-27T08:44:10.98Z</time></trkpt><trkpt lat="39.92913874256168" lon="8.827350236667943"><ele>640.0</ele><time>2026-04-27T08:44:11.98Z</time></trkpt><trkpt lat="39.929066760484034" lon="8.827487447907698"><ele>640.0</ele><time>2026-04-27T08:44:12.98Z</time></trkpt><trkpt lat="39.929012209318664" lon="8.827625365549046"><ele>640.0</ele><time>2026-04-27T08:44:13.98Z</time></trkpt><trkpt lat="39.92895778890516" lon="8.827750810016317"><ele>640.0</ele><time>2026-04-27T08:44:14.98Z</time></trkpt><trkpt lat="39.9289103112226" lon="8.82787188220727"><ele>640.0</ele><time>2026-04-27T08:44:15.98Z</time></trkpt><trkpt lat="39.92886617857027" lon="8.82798436980654"><ele>640.0</ele><time>2026-04-27T08:44:16.98Z</time></trkpt><trkpt lat="39.92882513232613" lon="8.82808110522653"><ele>639.8333333333334</ele><time>2026-04-27T08:44:17.98Z</time></trkpt><trkpt lat="39.92878017529539" lon="8.828252257115212"><ele>639.6666666666667</ele><time>2026-04-27T08:44:19.98Z</time></trkpt><trkpt lat="39.92877613129876" lon="8.82835355020038"><ele>639.5</ele><time>2026-04-27T08:44:20.98Z</time></trkpt><trkpt lat="39.92879337367804" lon="8.828451232790657"><ele>639.3333333333334</ele><time>2026-04-27T08:44:21.98Z</time></trkpt><trkpt lat="39.92881106457291" lon="8.82854039974148"><ele>639.1666666666666</ele><time>2026-04-27T08:44:22.98Z</time></trkpt><trkpt lat="39.9288345080857" lon="8.828632462883837"><ele>639.0</ele><time>2026-04-27T08:44:23.98Z</time></trkpt><trkpt lat="39.92886124371039" lon="8.828787165605238"><ele>639.0</ele><time>2026-04-27T08:44:25.98Z</time></trkpt><trkpt lat="39.928843929149174" lon="8.8289129128413"><ele>639.0</ele><time>2026-04-27T08:44:27.98Z</time></trkpt><trkpt lat="39.92875490343537" lon="8.82904370725544"><ele>639.0</ele><time>2026-04-27T08:44:29.98Z</time></trkpt><trkpt lat="39.92870241844205" lon="8.829130675385372"><ele>639.0</ele><time>2026-04-27T08:44:30.98Z</time></trkpt><trkpt lat="39.92865185330252" lon="8.829206898537924"><ele>639.0</ele><time>2026-04-27T08:44:31.98Z</time></trkpt><trkpt lat="39.92859140521827" lon="8.829284416567354"><ele>637.6</ele><time>2026-04-27T08:44:32.98Z</time></trkpt><trkpt lat="39.92852236453784" lon="8.829355154395072"><ele>636.2</ele><time>2026-04-27T08:44:33.98Z</time></trkpt><trkpt lat="39.928447595684695" lon="8.829420203141645"><ele>634.8000000000001</ele><time>2026-04-27T08:44:34.98Z</time></trkpt><trkpt lat="39.928367282180794" lon="8.82948843560078"><ele>633.4</ele><time>2026-04-27T08:44:35.98Z</time></trkpt><trkpt lat="39.92828393027948" lon="8.829546027903396"><ele>632.0</ele><time>2026-04-27T08:44:36.98Z</time></trkpt><trkpt lat="39.928194028410296" lon="8.82961507569955"><ele>632.0</ele><time>2026-04-27T08:44:37.98Z</time></trkpt><trkpt lat="39.9281121600276" lon="8.829680951639778"><ele>632.0</ele><time>2026-04-27T08:44:38.98Z</time></trkpt><trkpt lat="39.92804166573631" lon="8.829743891175097"><ele>632.0</ele><time>2026-04-27T08:44:39.98Z</time></trkpt><trkpt lat="39.927984256431984" lon="8.829801900777099"><ele>632.0</ele><time>2026-04-27T08:44:40.98Z</time></trkpt><trkpt lat="39.92792971586301" lon="8.829866374422588"><ele>632.0</ele><time>2026-04-27T08:44:41.98Z</time></trkpt><trkpt lat="39.92788217955087" lon="8.829934983565714"><ele>632.0</ele><time>2026-04-27T08:44:42.98Z</time></trkpt><trkpt lat="39.927794059037865" lon="8.830025589545228"><ele>632.0</ele><time>2026-04-27T08:44:44.98Z</time></trkpt><trkpt lat="39.92775387806397" lon="8.830089892110085"><ele>632.0</ele><time>2026-04-27T08:44:46.98Z</time></trkpt><trkpt lat="39.927734032769294" lon="8.830182323600791"><ele>632.0</ele><time>2026-04-27T08:46:40.979Z</time></trkpt><trkpt lat="39.92766637695159" lon="8.830309807945703"><ele>632.0</ele><time>2026-04-27T08:46:43.979Z</time></trkpt><trkpt lat="39.92761035531129" lon="8.830462340757183"><ele>632.0</ele><time>2026-04-27T08:46:45.979Z</time></trkpt><trkpt lat="39.92755951373215" lon="8.830541752299384"><ele>628.8333333333333</ele><time>2026-04-27T08:46:46.979Z</time></trkpt><trkpt lat="39.92753488867436" lon="8.830648766309086"><ele>625.6666666666666</ele><time>2026-04-27T08:46:47.979Z</time></trkpt><trkpt lat="39.92750869052832" lon="8.830754718129716"><ele>622.5</ele><time>2026-04-27T08:46:48.979Z</time></trkpt><trkpt lat="39.9274771203017" lon="8.830846734664654"><ele>619.3333333333334</ele><time>2026-04-27T08:46:49.979Z</time></trkpt><trkpt lat="39.92746115419595" lon="8.830961898853177"><ele>616.1666666666667</ele><time>2026-04-27T08:46:50.979Z</time></trkpt><trkpt lat="39.9274104550277" lon="8.83103937347404"><ele>613.0</ele><time>2026-04-27T08:46:51.979Z</time></trkpt><trkpt lat="39.92736246569683" lon="8.831110539344007"><ele>612.0</ele><time>2026-04-27T08:46:52.979Z</time></trkpt><trkpt lat="39.92729052032137" lon="8.83120634496733"><ele>611.0</ele><time>2026-04-27T08:46:53.979Z</time></trkpt><trkpt lat="39.927216670442746" lon="8.83130378095097"><ele>610.0</ele><time>2026-04-27T08:46:54.979Z</time></trkpt><trkpt lat="39.92712857658201" lon="8.831425122561333"><ele>609.0</ele><time>2026-04-27T08:46:55.979Z</time></trkpt><trkpt lat="39.92703360655131" lon="8.831528287760435"><ele>609.0</ele><time>2026-04-27T08:46:56.979Z</time></trkpt><trkpt lat="39.92693359994718" lon="8.831647832349208"><ele>609.0</ele><time>2026-04-27T08:46:57.979Z</time></trkpt><trkpt lat="39.92686571389796" lon="8.831760014850715"><ele>609.0</ele><time>2026-04-27T08:46:58.979Z</time></trkpt><trkpt lat="39.92678810248541" lon="8.831871957107081"><ele>609.0</ele><time>2026-04-27T08:46:59.979Z</time></trkpt><trkpt lat="39.92669946678056" lon="8.83198213998749"><ele>606.0</ele><time>2026-04-27T08:47:00.979Z</time></trkpt><trkpt lat="39.92660382438882" lon="8.832098214828736"><ele>603.0</ele><time>2026-04-27T08:47:01.979Z</time></trkpt><trkpt lat="39.926504021565734" lon="8.832214974583305"><ele>600.0</ele><time>2026-04-27T08:47:02.979Z</time></trkpt><trkpt lat="39.92638578653675" lon="8.83230261805052"><ele>597.0</ele><time>2026-04-27T08:47:03.979Z</time></trkpt><trkpt lat="39.92628312295154" lon="8.832425566045858"><ele>597.0</ele><time>2026-04-27T08:47:04.979Z</time></trkpt><trkpt lat="39.92618691134239" lon="8.832540199520182"><ele>597.0</ele><time>2026-04-27T08:47:05.979Z</time></trkpt><trkpt lat="39.92608432443125" lon="8.832659177465196"><ele>597.0</ele><time>2026-04-27T08:47:06.979Z</time></trkpt><trkpt lat="39.92598474990098" lon="8.832772534636558"><ele>597.0</ele><time>2026-04-27T08:47:07.979Z</time></trkpt><trkpt lat="39.92588994201126" lon="8.83289006323677"><ele>596.5</ele><time>2026-04-27T08:47:08.979Z</time></trkpt><trkpt lat="39.92579760894214" lon="8.833010465224474"><ele>596.0</ele><time>2026-04-27T08:47:09.979Z</time></trkpt><trkpt lat="39.92570261721913" lon="8.833144015088793"><ele>595.5</ele><time>2026-04-27T08:47:10.979Z</time></trkpt><trkpt lat="39.925624569543686" lon="8.833292509414138"><ele>595.0</ele><time>2026-04-27T08:47:11.979Z</time></trkpt><trkpt lat="39.92553156721463" lon="8.83345219949561"><ele>593.5</ele><time>2026-04-27T08:47:12.979Z</time></trkpt><trkpt lat="39.92544500687412" lon="8.833600769865063"><ele>592.0</ele><time>2026-04-27T08:47:13.979Z</time></trkpt><trkpt lat="39.92535718669279" lon="8.833727203201551"><ele>590.5</ele><time>2026-04-27T08:47:14.979Z</time></trkpt><trkpt lat="39.92527287412752" lon="8.833857956138694"><ele>589.0</ele><time>2026-04-27T08:47:15.979Z</time></trkpt><trkpt lat="39.92518631194617" lon="8.833980936478314"><ele>589.0</ele><time>2026-04-27T08:47:16.979Z</time></trkpt><trkpt lat="39.92509489141887" lon="8.83409299991777"><ele>589.0</ele><time>2026-04-27T08:47:17.979Z</time></trkpt><trkpt lat="39.92499095615256" lon="8.8342669882908"><ele>589.0</ele><time>2026-04-27T08:47:18.979Z</time></trkpt><trkpt lat="39.924885940695724" lon="8.834395857253499"><ele>589.0</ele><time>2026-04-27T08:47:19.979Z</time></trkpt><trkpt lat="39.92479066771977" lon="8.83453614488864"><ele>592.5</ele><time>2026-04-27T08:47:20.979Z</time></trkpt><trkpt lat="39.92470085416063" lon="8.834678695830226"><ele>596.0</ele><time>2026-04-27T08:47:21.979Z</time></trkpt><trkpt lat="39.92461367661291" lon="8.83482475912336"><ele>599.5</ele><time>2026-04-27T08:47:22.979Z</time></trkpt><trkpt lat="39.92452715211523" lon="8.834969272501644"><ele>603.0</ele><time>2026-04-27T08:47:23.979Z</time></trkpt><trkpt lat="39.92444304430163" lon="8.835114747385711"><ele>603.0</ele><time>2026-04-27T08:47:24.979Z</time></trkpt><trkpt lat="39.92435485778345" lon="8.83526046047006"><ele>603.0</ele><time>2026-04-27T08:47:25.979Z</time></trkpt><trkpt lat="39.924276816087755" lon="8.835401988506238"><ele>603.0</ele><time>2026-04-27T08:47:26.979Z</time></trkpt><trkpt lat="39.924202478650656" lon="8.835548032228782"><ele>603.0</ele><time>2026-04-27T08:47:27.979Z</time></trkpt><trkpt lat="39.92412350707146" lon="8.835704551951228"><ele>604.0</ele><time>2026-04-27T08:47:28.979Z</time></trkpt><trkpt lat="39.92403914973772" lon="8.835862777630593"><ele>605.0</ele><time>2026-04-27T08:47:29.979Z</time></trkpt><trkpt lat="39.92394858539335" lon="8.83601368759178"><ele>606.0</ele><time>2026-04-27T08:47:30.979Z</time></trkpt><trkpt lat="39.923856350767686" lon="8.836157550000443"><ele>607.0</ele><time>2026-04-27T08:47:31.979Z</time></trkpt><trkpt lat="39.92374735487992" lon="8.836281752058074"><ele>607.0</ele><time>2026-04-27T08:47:32.979Z</time></trkpt><trkpt lat="39.92365258117138" lon="8.836412950795632"><ele>607.0</ele><time>2026-04-27T08:47:33.979Z</time></trkpt><trkpt lat="39.923563003949155" lon="8.836536625631078"><ele>607.0</ele><time>2026-04-27T08:47:34.979Z</time></trkpt><trkpt lat="39.92347339845748" lon="8.836660339549674"><ele>607.0</ele><time>2026-04-27T08:47:35.979Z</time></trkpt><trkpt lat="39.92338951252372" lon="8.83678171295135"><ele>604.8000000000001</ele><time>2026-04-27T08:47:36.979Z</time></trkpt><trkpt lat="39.923321007349166" lon="8.836912315852057"><ele>602.6</ele><time>2026-04-27T08:47:37.979Z</time></trkpt><trkpt lat="39.923239608180374" lon="8.83701485385382"><ele>600.4000000000001</ele><time>2026-04-27T08:47:38.979Z</time></trkpt><trkpt lat="39.923167911003496" lon="8.837116144503133"><ele>598.2</ele><time>2026-04-27T08:47:39.979Z</time></trkpt><trkpt lat="39.92309308809213" lon="8.83721807043152"><ele>596.0</ele><time>2026-04-27T08:47:40.979Z</time></trkpt><trkpt lat="39.92303007376194" lon="8.837293670732192"><ele>596.0</ele><time>2026-04-27T08:47:41.979Z</time></trkpt><trkpt lat="39.9229668846173" lon="8.837393144022085"><ele>596.0</ele><time>2026-04-27T08:47:42.979Z</time></trkpt><trkpt lat="39.92288817417389" lon="8.837490564260506"><ele>596.0</ele><time>2026-04-27T08:47:43.979Z</time></trkpt><trkpt lat="39.9228113637935" lon="8.837588386003565"><ele>596.0</ele><time>2026-04-27T08:47:44.979Z</time></trkpt><trkpt lat="39.92272489986482" lon="8.8376627220169"><ele>596.0</ele><time>2026-04-27T08:47:45.979Z</time></trkpt><trkpt lat="39.922656026019716" lon="8.837750304852449"><ele>594.1666666666666</ele><time>2026-04-27T08:47:46.979Z</time></trkpt><trkpt lat="39.92259121418092" lon="8.837809244337226"><ele>592.3333333333333</ele><time>2026-04-27T08:47:47.979Z</time></trkpt><trkpt lat="39.92252670859711" lon="8.837876040015695"><ele>590.5</ele><time>2026-04-27T08:47:48.979Z</time></trkpt><trkpt lat="39.92244968916818" lon="8.837953621135863"><ele>588.6666666666666</ele><time>2026-04-27T08:47:49.979Z</time></trkpt><trkpt lat="39.92238216512747" lon="8.83802787401687"><ele>586.8333333333334</ele><time>2026-04-27T08:47:50.979Z</time></trkpt><trkpt lat="39.92231219399644" lon="8.838107551522219"><ele>585.0</ele><time>2026-04-27T08:47:51.979Z</time></trkpt><trkpt lat="39.922246591771305" lon="8.838167435862363"><ele>585.0</ele><time>2026-04-27T08:47:52.979Z</time></trkpt><trkpt lat="39.922186412733005" lon="8.838239138871899"><ele>585.0</ele><time>2026-04-27T08:47:53.979Z</time></trkpt><trkpt lat="39.92211965964686" lon="8.838295373485797"><ele>585.0</ele><time>2026-04-27T08:47:54.979Z</time></trkpt><trkpt lat="39.92205104234081" lon="8.838332199687745"><ele>585.0</ele><time>2026-04-27T08:47:55.979Z</time></trkpt><trkpt lat="39.92197133886325" lon="8.838354800879387"><ele>585.0</ele><time>2026-04-27T08:47:56.979Z</time></trkpt><trkpt lat="39.921865596749825" lon="8.838375018837201"><ele>585.0</ele><time>2026-04-27T08:47:57.979Z</time></trkpt><trkpt lat="39.92175636745433" lon="8.83837513568973"><ele>582.8333333333334</ele><time>2026-04-27T08:47:58.978Z</time></trkpt><trkpt lat="39.921653273325305" lon="8.838385925243815"><ele>580.6666666666666</ele><time>2026-04-27T08:47:59.978Z</time></trkpt><trkpt lat="39.92155268982701" lon="8.83839250166914"><ele>578.5</ele><time>2026-04-27T08:48:00.978Z</time></trkpt><trkpt lat="39.92146984332451" lon="8.83839108591854"><ele>576.3333333333333</ele><time>2026-04-27T08:48:01.978Z</time></trkpt><trkpt lat="39.92138592608784" lon="8.83839628339427"><ele>574.1666666666666</ele><time>2026-04-27T08:48:02.979Z</time></trkpt><trkpt lat="39.921309735978724" lon="8.838375870630582"><ele>572.0</ele><time>2026-04-27T08:48:03.979Z</time></trkpt><trkpt lat="39.92121574026716" lon="8.838389557207508"><ele>572.0</ele><time>2026-04-27T08:48:04.979Z</time></trkpt><trkpt lat="39.92113741384298" lon="8.838406354913438"><ele>572.0</ele><time>2026-04-27T08:48:05.979Z</time></trkpt><trkpt lat="39.92105106794074" lon="8.838446568781931"><ele>572.0</ele><time>2026-04-27T08:48:06.979Z</time></trkpt><trkpt lat="39.9209573431479" lon="8.838509071507374"><ele>572.0</ele><time>2026-04-27T08:48:07.979Z</time></trkpt><trkpt lat="39.920855570198825" lon="8.83859023318525"><ele>572.0</ele><time>2026-04-27T08:48:08.979Z</time></trkpt><trkpt lat="39.920743256244954" lon="8.838685428664027"><ele>568.75</ele><time>2026-04-27T08:48:09.979Z</time></trkpt><trkpt lat="39.920621174455725" lon="8.838795705466215"><ele>565.5</ele><time>2026-04-27T08:48:10.979Z</time></trkpt><trkpt lat="39.92051012117202" lon="8.838903238694668"><ele>562.25</ele><time>2026-04-27T08:48:11.979Z</time></trkpt><trkpt lat="39.920399349700844" lon="8.839001644147197"><ele>559.0</ele><time>2026-04-27T08:48:12.979Z</time></trkpt><trkpt lat="39.920302795212415" lon="8.839084575321454"><ele>559.0</ele><time>2026-04-27T08:48:13.979Z</time></trkpt><trkpt lat="39.920191736001776" lon="8.839138592515342"><ele>559.0</ele><time>2026-04-27T08:48:14.979Z</time></trkpt><trkpt lat="39.920079853586905" lon="8.839178791708607"><ele>559.0</ele><time>2026-04-27T08:48:15.979Z</time></trkpt><trkpt lat="39.919984012865044" lon="8.839226911065495"><ele>559.0</ele><time>2026-04-27T08:48:16.979Z</time></trkpt><trkpt lat="39.91991244148361" lon="8.839260611043406"><ele>559.0</ele><time>2026-04-27T08:48:17.979Z</time></trkpt><trkpt lat="39.91980921787759" lon="8.8392808568363"><ele>559.2</ele><time>2026-04-27T08:48:18.979Z</time></trkpt><trkpt lat="39.91969594347525" lon="8.839276264861637"><ele>559.4</ele><time>2026-04-27T08:48:19.979Z</time></trkpt><trkpt lat="39.91958649187743" lon="8.839261435280193"><ele>559.6</ele><time>2026-04-27T08:48:20.979Z</time></trkpt><trkpt lat="39.91947894603443" lon="8.839237775396533"><ele>559.8</ele><time>2026-04-27T08:48:21.979Z</time></trkpt><trkpt lat="39.91937154664406" lon="8.839224428858262"><ele>560.0</ele><time>2026-04-27T08:48:22.979Z</time></trkpt><trkpt lat="39.919254027577345" lon="8.83921708159627"><ele>558.0</ele><time>2026-04-27T08:48:23.979Z</time></trkpt><trkpt lat="39.919149666187316" lon="8.839199341640514"><ele>556.0</ele><time>2026-04-27T08:48:24.979Z</time></trkpt><trkpt lat="39.919046483542516" lon="8.839189133248809"><ele>554.0</ele><time>2026-04-27T08:48:25.979Z</time></trkpt><trkpt lat="39.9189464006772" lon="8.839206894226733"><ele>552.0</ele><time>2026-04-27T08:48:26.979Z</time></trkpt><trkpt lat="39.918841222378084" lon="8.83923444077809"><ele>550.0</ele><time>2026-04-27T08:48:27.979Z</time></trkpt><trkpt lat="39.91872198425321" lon="8.839277393254571"><ele>547.8</ele><time>2026-04-27T08:48:28.979Z</time></trkpt><trkpt lat="39.91860528360131" lon="8.839325338787125"><ele>545.6</ele><time>2026-04-27T08:48:29.979Z</time></trkpt><trkpt lat="39.91850105776593" lon="8.839372875297753"><ele>543.4</ele><time>2026-04-27T08:48:30.979Z</time></trkpt><trkpt lat="39.91840854737532" lon="8.8394311207277"><ele>541.2</ele><time>2026-04-27T08:48:31.979Z</time></trkpt><trkpt lat="39.91831380712952" lon="8.839494400316836"><ele>539.0</ele><time>2026-04-27T08:48:32.979Z</time></trkpt><trkpt lat="39.91820800891014" lon="8.83955705214909"><ele>536.75</ele><time>2026-04-27T08:48:33.979Z</time></trkpt><trkpt lat="39.918110177859056" lon="8.839665819791112"><ele>534.5</ele><time>2026-04-27T08:48:34.979Z</time></trkpt><trkpt lat="39.917997235527885" lon="8.839767487155124"><ele>532.25</ele><time>2026-04-27T08:48:35.979Z</time></trkpt><trkpt lat="39.9178891816048" lon="8.839889695829083"><ele>530.0</ele><time>2026-04-27T08:48:36.979Z</time></trkpt><trkpt lat="39.917779210078685" lon="8.839991755675724"><ele>530.0</ele><time>2026-04-27T08:48:37.979Z</time></trkpt><trkpt lat="39.917665708363785" lon="8.840101665913139"><ele>530.0</ele><time>2026-04-27T08:48:38.979Z</time></trkpt><trkpt lat="39.91755698699203" lon="8.840197278704277"><ele>530.0</ele><time>2026-04-27T08:48:39.979Z</time></trkpt><trkpt lat="39.91745165366011" lon="8.840283988054967"><ele>530.0</ele><time>2026-04-27T08:48:40.979Z</time></trkpt><trkpt lat="39.91735296025426" lon="8.840365696988998"><ele>528.8</ele><time>2026-04-27T08:48:41.979Z</time></trkpt><trkpt lat="39.91725617386471" lon="8.840429428882036"><ele>527.6</ele><time>2026-04-27T08:48:42.979Z</time></trkpt><trkpt lat="39.91716784647079" lon="8.840472773402087"><ele>526.4</ele><time>2026-04-27T08:48:43.979Z</time></trkpt><trkpt lat="39.91708470189089" lon="8.840508447128697"><ele>525.2</ele><time>2026-04-27T08:48:44.979Z</time></trkpt><trkpt lat="39.91698451182645" lon="8.840531183931429"><ele>524.0</ele><time>2026-04-27T08:48:45.979Z</time></trkpt><trkpt lat="39.916889346623876" lon="8.840551605028434"><ele>524.0</ele><time>2026-04-27T08:48:46.979Z</time></trkpt><trkpt lat="39.916793429380085" lon="8.840575177766933"><ele>524.0</ele><time>2026-04-27T08:48:47.979Z</time></trkpt><trkpt lat="39.91669343394631" lon="8.840610757112024"><ele>524.0</ele><time>2026-04-27T08:48:48.979Z</time></trkpt><trkpt lat="39.916596913347156" lon="8.840645252633774"><ele>524.0</ele><time>2026-04-27T08:48:49.979Z</time></trkpt><trkpt lat="39.916507967878616" lon="8.840657500804975"><ele>524.0</ele><time>2026-04-27T08:48:50.979Z</time></trkpt><trkpt lat="39.91642039693338" lon="8.84069406958459"><ele>523.4</ele><time>2026-04-27T08:48:51.979Z</time></trkpt><trkpt lat="39.91633221827433" lon="8.840721424195975"><ele>522.8</ele><time>2026-04-27T08:48:52.979Z</time></trkpt><trkpt lat="39.916237736734196" lon="8.840768498918342"><ele>522.2</ele><time>2026-04-27T08:48:53.979Z</time></trkpt><trkpt lat="39.91614086964295" lon="8.84081359476669"><ele>521.6</ele><time>2026-04-27T08:48:54.979Z</time></trkpt><trkpt lat="39.91604833979678" lon="8.840872916121969"><ele>521.0</ele><time>2026-04-27T08:48:55.979Z</time></trkpt><trkpt lat="39.91597052188085" lon="8.840929979641988"><ele>517.2</ele><time>2026-04-27T08:48:56.979Z</time></trkpt><trkpt lat="39.91587866853573" lon="8.8409826014585"><ele>513.4000000000001</ele><time>2026-04-27T08:48:57.979Z</time></trkpt><trkpt lat="39.91579758063013" lon="8.84103213488761"><ele>509.6</ele><time>2026-04-27T08:48:58.979Z</time></trkpt><trkpt lat="39.91573316761759" lon="8.84106625003718"><ele>505.8</ele><time>2026-04-27T08:48:59.979Z</time></trkpt><trkpt lat="39.91566426252356" lon="8.84110907309478"><ele>502.0</ele><time>2026-04-27T08:49:01.979Z</time></trkpt><trkpt lat="39.91576921761206" lon="8.84101711519012"><ele>503.20000000000005</ele><time>2026-04-27T08:49:08.979Z</time></trkpt><trkpt lat="39.91581048608126" lon="8.840897953348657"><ele>504.40000000000003</ele><time>2026-04-27T08:49:09.979Z</time></trkpt><trkpt lat="39.91586958172074" lon="8.840837500255576"><ele>505.59999999999997</ele><time>2026-04-27T08:49:10.979Z</time></trkpt><trkpt lat="39.91592193822158" lon="8.8407681320845"><ele>506.79999999999995</ele><time>2026-04-27T08:49:11.979Z</time></trkpt><trkpt lat="39.91597376621777" lon="8.84062430839885"><ele>508.0</ele><time>2026-04-27T08:49:13.979Z</time></trkpt><trkpt lat="39.91595140835406" lon="8.84047385499326"><ele>508.00000000000006</ele><time>2026-04-27T08:49:15.979Z</time></trkpt><trkpt lat="39.91591532459278" lon="8.840394927209712"><ele>508.0</ele><time>2026-04-27T08:49:16.979Z</time></trkpt><trkpt lat="39.91586842165127" lon="8.84033874300594"><ele>508.0</ele><time>2026-04-27T08:49:17.979Z</time></trkpt><trkpt lat="39.91580096488266" lon="8.840252517064279"><ele>508.0</ele><time>2026-04-27T08:49:18.979Z</time></trkpt><trkpt lat="39.91573879069532" lon="8.840147861759057"><ele>508.00000000000006</ele><time>2026-04-27T08:49:19.979Z</time></trkpt><trkpt lat="39.915673167399966" lon="8.840059576699513"><ele>508.0</ele><time>2026-04-27T08:49:20.979Z</time></trkpt><trkpt lat="39.915600505486005" lon="8.83997092557007"><ele>507.75</ele><time>2026-04-27T08:49:21.979Z</time></trkpt><trkpt lat="39.91551138481683" lon="8.839882057350534"><ele>507.5</ele><time>2026-04-27T08:49:22.979Z</time></trkpt><trkpt lat="39.91541413122029" lon="8.839804004693397"><ele>507.25</ele><time>2026-04-27T08:49:23.979Z</time></trkpt><trkpt lat="39.91530333613827" lon="8.839746921605991"><ele>507.0</ele><time>2026-04-27T08:49:24.979Z</time></trkpt><trkpt lat="39.91519736687893" lon="8.839666077916977"><ele>507.0</ele><time>2026-04-27T08:49:25.979Z</time></trkpt><trkpt lat="39.91508971939877" lon="8.839607799759088"><ele>507.0</ele><time>2026-04-27T08:49:26.979Z</time></trkpt><trkpt lat="39.914981013443686" lon="8.839544863959182"><ele>507.0</ele><time>2026-04-27T08:49:27.979Z</time></trkpt><trkpt lat="39.91487866038218" lon="8.839485832815097"><ele>507.0</ele><time>2026-04-27T08:49:28.979Z</time></trkpt><trkpt lat="39.91477555937245" lon="8.839433212950562"><ele>506.40000000000003</ele><time>2026-04-27T08:49:29.979Z</time></trkpt><trkpt lat="39.914677910598016" lon="8.839370329581183"><ele>505.80000000000007</ele><time>2026-04-27T08:49:30.979Z</time></trkpt><trkpt lat="39.914575434501536" lon="8.839312859767652"><ele>505.2</ele><time>2026-04-27T08:49:31.979Z</time></trkpt><trkpt lat="39.91447389637459" lon="8.839263435916134"><ele>504.6</ele><time>2026-04-27T08:49:32.979Z</time></trkpt><trkpt lat="39.914370312348275" lon="8.83921617494482"><ele>504.0</ele><time>2026-04-27T08:49:33.979Z</time></trkpt><trkpt lat="39.91426680919077" lon="8.839175280313038"><ele>505.0</ele><time>2026-04-27T08:49:34.979Z</time></trkpt><trkpt lat="39.914154432041514" lon="8.839143336421785"><ele>506.0</ele><time>2026-04-27T08:49:35.979Z</time></trkpt><trkpt lat="39.91403860496979" lon="8.839116659174696"><ele>507.0</ele><time>2026-04-27T08:49:36.979Z</time></trkpt><trkpt lat="39.91391479499816" lon="8.839094868561373"><ele>508.0</ele><time>2026-04-27T08:49:37.979Z</time></trkpt><trkpt lat="39.913794034831966" lon="8.83908248975054"><ele>508.0</ele><time>2026-04-27T08:49:38.979Z</time></trkpt><trkpt lat="39.91367918361704" lon="8.839063204930731"><ele>508.0</ele><time>2026-04-27T08:49:39.979Z</time></trkpt><trkpt lat="39.91357258416294" lon="8.839037628425842"><ele>508.0</ele><time>2026-04-27T08:49:40.979Z</time></trkpt><trkpt lat="39.913467569578685" lon="8.83898844139296"><ele>508.0</ele><time>2026-04-27T08:49:41.979Z</time></trkpt><trkpt lat="39.9133618689837" lon="8.838916516055896"><ele>508.2</ele><time>2026-04-27T08:49:42.979Z</time></trkpt><trkpt lat="39.9132515085621" lon="8.83884109810047"><ele>508.4</ele><time>2026-04-27T08:49:43.979Z</time></trkpt><trkpt lat="39.91315233112412" lon="8.838774262917287"><ele>508.59999999999997</ele><time>2026-04-27T08:49:44.979Z</time></trkpt><trkpt lat="39.913058487778216" lon="8.838728883513866"><ele>508.79999999999995</ele><time>2026-04-27T08:49:45.979Z</time></trkpt><trkpt lat="39.912967129121846" lon="8.838701983189381"><ele>509.0</ele><time>2026-04-27T08:49:46.979Z</time></trkpt><trkpt lat="39.91288654368295" lon="8.838708397152308"><ele>508.99999999999994</ele><time>2026-04-27T08:49:47.979Z</time></trkpt><trkpt lat="39.91280939925923" lon="8.838727887304483"><ele>509.0</ele><time>2026-04-27T08:49:48.979Z</time></trkpt><trkpt lat="39.91273039052735" lon="8.838757664061301"><ele>509.0</ele><time>2026-04-27T08:49:49.979Z</time></trkpt><trkpt lat="39.912651496526166" lon="8.83878095833072"><ele>509.0</ele><time>2026-04-27T08:49:50.979Z</time></trkpt><trkpt lat="39.91256934929615" lon="8.838801928140876"><ele>508.99999999999994</ele><time>2026-04-27T08:49:51.978Z</time></trkpt><trkpt lat="39.91248678002473" lon="8.83883575007711"><ele>509.0</ele><time>2026-04-27T08:49:52.978Z</time></trkpt><trkpt lat="39.91240089317284" lon="8.838833347686142"><ele>507.16666666666663</ele><time>2026-04-27T08:49:53.978Z</time></trkpt><trkpt lat="39.9123208783353" lon="8.838847734268551"><ele>505.3333333333333</ele><time>2026-04-27T08:49:54.978Z</time></trkpt><trkpt lat="39.91223648256637" lon="8.838874633725045"><ele>503.5</ele><time>2026-04-27T08:49:55.978Z</time></trkpt><trkpt lat="39.91215050460254" lon="8.83887240599031"><ele>501.66666666666663</ele><time>2026-04-27T08:49:56.978Z</time></trkpt><trkpt lat="39.91206640522582" lon="8.838854230525884"><ele>499.8333333333333</ele><time>2026-04-27T08:49:57.979Z</time></trkpt><trkpt lat="39.911984787674946" lon="8.838838858565476"><ele>498.0</ele><time>2026-04-27T08:49:58.978Z</time></trkpt><trkpt lat="39.911906791522526" lon="8.838827919559844"><ele>498.0</ele><time>2026-04-27T08:49:59.978Z</time></trkpt><trkpt lat="39.91182728834692" lon="8.838818457874638"><ele>498.0</ele><time>2026-04-27T08:50:00.978Z</time></trkpt><trkpt lat="39.911755127794834" lon="8.83880747608597"><ele>498.0</ele><time>2026-04-27T08:50:01.978Z</time></trkpt><trkpt lat="39.911681696634865" lon="8.838800040439043"><ele>498.0</ele><time>2026-04-27T08:50:02.978Z</time></trkpt><trkpt lat="39.911598853283024" lon="8.83878401496132"><ele>498.0</ele><time>2026-04-27T08:50:03.978Z</time></trkpt><trkpt lat="39.91152625059447" lon="8.838774840727886"><ele>498.0</ele><time>2026-04-27T08:50:04.978Z</time></trkpt><trkpt lat="39.91144256790936" lon="8.838760664172536"><ele>495.79999999999995</ele><time>2026-04-27T08:50:05.978Z</time></trkpt><trkpt lat="39.91135059854401" lon="8.838731415257866"><ele>493.59999999999997</ele><time>2026-04-27T08:50:06.978Z</time></trkpt><trkpt lat="39.91126309497061" lon="8.838712031846281"><ele>491.40000000000003</ele><time>2026-04-27T08:50:07.978Z</time></trkpt><trkpt lat="39.91117372160953" lon="8.838692803018969"><ele>489.20000000000005</ele><time>2026-04-27T08:50:08.978Z</time></trkpt><trkpt lat="39.911083505615764" lon="8.838667611754946"><ele>487.0</ele><time>2026-04-27T08:50:09.978Z</time></trkpt><trkpt lat="39.91098464913393" lon="8.83864267303667"><ele>484.0</ele><time>2026-04-27T08:50:10.978Z</time></trkpt><trkpt lat="39.9108816508787" lon="8.838622377065198"><ele>481.00000000000006</ele><time>2026-04-27T08:50:11.978Z</time></trkpt><trkpt lat="39.910794444089746" lon="8.838590976416466"><ele>478.00000000000006</ele><time>2026-04-27T08:50:12.978Z</time></trkpt><trkpt lat="39.91069914064672" lon="8.838559890238674"><ele>475.0</ele><time>2026-04-27T08:50:13.978Z</time></trkpt><trkpt lat="39.910608354870895" lon="8.838531658771764"><ele>472.0</ele><time>2026-04-27T08:50:14.978Z</time></trkpt><trkpt lat="39.910518934773826" lon="8.83850152544064"><ele>472.6666666666667</ele><time>2026-04-27T08:50:15.978Z</time></trkpt><trkpt lat="39.910440581777806" lon="8.838446882641357"><ele>473.33333333333337</ele><time>2026-04-27T08:50:16.978Z</time></trkpt><trkpt lat="39.91036868387587" lon="8.838394391565853"><ele>474.0</ele><time>2026-04-27T08:50:17.978Z</time></trkpt><trkpt lat="39.910297561979455" lon="8.838330258831494"><ele>474.66666666666663</ele><time>2026-04-27T08:50:18.978Z</time></trkpt><trkpt lat="39.910230277655074" lon="8.838251928763324"><ele>475.3333333333333</ele><time>2026-04-27T08:50:19.978Z</time></trkpt><trkpt lat="39.910192069539434" lon="8.838151066373639"><ele>476.0</ele><time>2026-04-27T08:50:20.978Z</time></trkpt><trkpt lat="39.91015522725541" lon="8.838041799262458"><ele>476.0</ele><time>2026-04-27T08:50:21.978Z</time></trkpt><trkpt lat="39.91013949476783" lon="8.83794551585762"><ele>476.0</ele><time>2026-04-27T08:50:22.978Z</time></trkpt><trkpt lat="39.91011536901127" lon="8.837821461602493"><ele>476.0</ele><time>2026-04-27T08:50:23.978Z</time></trkpt><trkpt lat="39.9100849416764" lon="8.83767983132754"><ele>476.0</ele><time>2026-04-27T08:50:24.978Z</time></trkpt><trkpt lat="39.91005619017147" lon="8.837553925617707"><ele>476.0</ele><time>2026-04-27T08:50:26.978Z</time></trkpt><trkpt lat="39.91001586137396" lon="8.837449062389618"><ele>474.16666666666663</ele><time>2026-04-27T08:50:27.978Z</time></trkpt><trkpt lat="39.909983068825234" lon="8.837352117841704"><ele>472.3333333333333</ele><time>2026-04-27T08:50:28.978Z</time></trkpt><trkpt lat="39.90995003294633" lon="8.837269888931678"><ele>470.5</ele><time>2026-04-27T08:50:29.978Z</time></trkpt><trkpt lat="39.909904287462695" lon="8.837190225158423"><ele>468.66666666666663</ele><time>2026-04-27T08:50:30.978Z</time></trkpt><trkpt lat="39.90984036659733" lon="8.83710972845058"><ele>466.8333333333333</ele><time>2026-04-27T08:50:31.978Z</time></trkpt><trkpt lat="39.90976926282469" lon="8.837041093889212"><ele>465.0</ele><time>2026-04-27T08:50:32.978Z</time></trkpt><trkpt lat="39.90969549091953" lon="8.8369781000508"><ele>465.0</ele><time>2026-04-27T08:50:33.978Z</time></trkpt><trkpt lat="39.90961863753693" lon="8.8369171287423"><ele>465.0</ele><time>2026-04-27T08:50:34.978Z</time></trkpt><trkpt lat="39.9095386375634" lon="8.836870968301088"><ele>465.0</ele><time>2026-04-27T08:50:35.978Z</time></trkpt><trkpt lat="39.9094559599451" lon="8.836829204782338"><ele>465.0</ele><time>2026-04-27T08:50:36.978Z</time></trkpt><trkpt lat="39.90937411750089" lon="8.83678448724078"><ele>465.0</ele><time>2026-04-27T08:50:37.978Z</time></trkpt><trkpt lat="39.909292756775834" lon="8.836746438179272"><ele>465.0</ele><time>2026-04-27T08:50:38.978Z</time></trkpt><trkpt lat="39.9092144141114" lon="8.83671095939947"><ele>462.3333333333333</ele><time>2026-04-27T08:50:39.978Z</time></trkpt><trkpt lat="39.909138720239426" lon="8.836678616888403"><ele>459.66666666666663</ele><time>2026-04-27T08:50:40.978Z</time></trkpt><trkpt lat="39.90906079661814" lon="8.836640263277536"><ele>457.0</ele><time>2026-04-27T08:50:41.978Z</time></trkpt><trkpt lat="39.90898380741815" lon="8.836602761583693"><ele>454.3333333333333</ele><time>2026-04-27T08:50:42.978Z</time></trkpt><trkpt lat="39.90890819696385" lon="8.836563293830576"><ele>451.66666666666663</ele><time>2026-04-27T08:50:43.978Z</time></trkpt><trkpt lat="39.90883066631513" lon="8.836524891088851"><ele>449.0</ele><time>2026-04-27T08:50:44.978Z</time></trkpt><trkpt lat="39.90875063713309" lon="8.836487761742877"><ele>448.99999999999994</ele><time>2026-04-27T08:50:45.978Z</time></trkpt><trkpt lat="39.90867657600403" lon="8.836456577409946"><ele>449.0</ele><time>2026-04-27T08:50:46.978Z</time></trkpt><trkpt lat="39.90860117973895" lon="8.836427500552526"><ele>449.0</ele><time>2026-04-27T08:50:47.978Z</time></trkpt><trkpt lat="39.9085347196155" lon="8.836386915472874"><ele>449.0</ele><time>2026-04-27T08:50:48.978Z</time></trkpt><trkpt lat="39.90846036407133" lon="8.836354173198947"><ele>448.99999999999994</ele><time>2026-04-27T08:50:49.978Z</time></trkpt><trkpt lat="39.90838125540273" lon="8.836319337812196"><ele>449.0</ele><time>2026-04-27T08:50:50.978Z</time></trkpt><trkpt lat="39.908311607655044" lon="8.836302066796287"><ele>447.71428571428567</ele><time>2026-04-27T08:50:51.978Z</time></trkpt><trkpt lat="39.90824534295164" lon="8.836274009959276"><ele>446.4285714285714</ele><time>2026-04-27T08:50:52.978Z</time></trkpt><trkpt lat="39.9081829747916" lon="8.836248136676854"><ele>445.1428571428571</ele><time>2026-04-27T08:50:53.978Z</time></trkpt><trkpt lat="39.90810797301873" lon="8.836225292859396"><ele>443.85714285714283</ele><time>2026-04-27T08:50:54.978Z</time></trkpt><trkpt lat="39.908036060892435" lon="8.836206489418453"><ele>442.57142857142856</ele><time>2026-04-27T08:50:55.978Z</time></trkpt><trkpt lat="39.90797035990064" lon="8.83618884975912"><ele>441.2857142857142</ele><time>2026-04-27T08:50:56.978Z</time></trkpt><trkpt lat="39.907888397239894" lon="8.83617745718307"><ele>440.0</ele><time>2026-04-27T08:50:57.978Z</time></trkpt><trkpt lat="39.907810050837455" lon="8.836170002896454"><ele>440.0</ele><time>2026-04-27T08:50:58.978Z</time></trkpt><trkpt lat="39.907749811436005" lon="8.836134129315969"><ele>440.0</ele><time>2026-04-27T08:50:59.978Z</time></trkpt><trkpt lat="39.90763335035515" lon="8.836089323053159"><ele>440.0</ele><time>2026-04-27T08:51:01.978Z</time></trkpt><trkpt lat="39.907509442774376" lon="8.836030067787236"><ele>440.0</ele><time>2026-04-27T08:51:03.978Z</time></trkpt><trkpt lat="39.90744236974765" lon="8.835964296593504"><ele>440.0</ele><time>2026-04-27T08:51:04.978Z</time></trkpt><trkpt lat="39.90737177176875" lon="8.835887710406775"><ele>434.4</ele><time>2026-04-27T08:51:05.978Z</time></trkpt><trkpt lat="39.90730012951812" lon="8.835800026242628"><ele>428.8</ele><time>2026-04-27T08:51:06.978Z</time></trkpt><trkpt lat="39.90721469143649" lon="8.835703094239372"><ele>423.20000000000005</ele><time>2026-04-27T08:51:07.978Z</time></trkpt><trkpt lat="39.90713034375573" lon="8.835594755754435"><ele>417.6</ele><time>2026-04-27T08:51:08.978Z</time></trkpt><trkpt lat="39.90705553373757" lon="8.835486050474241"><ele>412.0</ele><time>2026-04-27T08:51:09.978Z</time></trkpt><trkpt lat="39.90698421072799" lon="8.835380475378514"><ele>412.0</ele><time>2026-04-27T08:51:10.978Z</time></trkpt><trkpt lat="39.90691860948011" lon="8.83528049131431"><ele>412.0</ele><time>2026-04-27T08:51:11.978Z</time></trkpt><trkpt lat="39.90685883871678" lon="8.835180199078442"><ele>412.0</ele><time>2026-04-27T08:51:12.978Z</time></trkpt><trkpt lat="39.90680571919324" lon="8.835079718608291"><ele>412.0</ele><time>2026-04-27T08:51:13.978Z</time></trkpt><trkpt lat="39.90676043806271" lon="8.834980880485963"><ele>412.0</ele><time>2026-04-27T08:51:14.978Z</time></trkpt><trkpt lat="39.90670333791195" lon="8.834879872126514"><ele>409.20000000000005</ele><time>2026-04-27T08:51:15.978Z</time></trkpt><trkpt lat="39.90665080727648" lon="8.834779022150457"><ele>406.4</ele><time>2026-04-27T08:51:16.978Z</time></trkpt><trkpt lat="39.90659557366193" lon="8.834687294341087"><ele>403.6</ele><time>2026-04-27T08:51:17.978Z</time></trkpt><trkpt lat="39.90652802862545" lon="8.834594736183611"><ele>400.79999999999995</ele><time>2026-04-27T08:51:18.978Z</time></trkpt><trkpt lat="39.90645456584249" lon="8.834495748829088"><ele>398.0</ele><time>2026-04-27T08:51:19.978Z</time></trkpt><trkpt lat="39.90638705068004" lon="8.834401785513952"><ele>397.99999999999994</ele><time>2026-04-27T08:51:20.978Z</time></trkpt><trkpt lat="39.906323467968996" lon="8.834313070386115"><ele>398.0</ele><time>2026-04-27T08:51:21.978Z</time></trkpt><trkpt lat="39.90626216794815" lon="8.834227007129616"><ele>398.0</ele><time>2026-04-27T08:51:22.978Z</time></trkpt><trkpt lat="39.90620428783406" lon="8.834143732468352"><ele>398.0</ele><time>2026-04-27T08:51:23.978Z</time></trkpt><trkpt lat="39.90614597256777" lon="8.834061248104549"><ele>397.99999999999994</ele><time>2026-04-27T08:51:24.978Z</time></trkpt><trkpt lat="39.90609480397104" lon="8.833981449671253"><ele>398.0</ele><time>2026-04-27T08:51:25.978Z</time></trkpt><trkpt lat="39.90604824144253" lon="8.833899634958787"><ele>396.99999999999994</ele><time>2026-04-27T08:51:26.978Z</time></trkpt><trkpt lat="39.906026619465315" lon="8.833812081165526"><ele>396.0</ele><time>2026-04-27T08:51:27.978Z</time></trkpt><trkpt lat="39.90599197189254" lon="8.833721801076177"><ele>395.0</ele><time>2026-04-27T08:51:28.978Z</time></trkpt><trkpt lat="39.90596198463733" lon="8.833625821735293"><ele>394.0</ele><time>2026-04-27T08:51:29.978Z</time></trkpt><trkpt lat="39.905935402675006" lon="8.833511193330848"><ele>392.99999999999994</ele><time>2026-04-27T08:51:30.978Z</time></trkpt><trkpt lat="39.90590486688862" lon="8.833381387760035"><ele>392.0</ele><time>2026-04-27T08:51:31.978Z</time></trkpt><trkpt lat="39.90587286203695" lon="8.83324021491293"><ele>389.25</ele><time>2026-04-27T08:51:32.978Z</time></trkpt><trkpt lat="39.905826743589905" lon="8.833105831585614"><ele>386.5</ele><time>2026-04-27T08:51:33.978Z</time></trkpt><trkpt lat="39.90580526282422" lon="8.832961006444448"><ele>383.75</ele><time>2026-04-27T08:51:34.978Z</time></trkpt><trkpt lat="39.90576909650376" lon="8.832819065137917"><ele>381.0</ele><time>2026-04-27T08:51:35.978Z</time></trkpt><trkpt lat="39.90573521649089" lon="8.832678143794817"><ele>379.8</ele><time>2026-04-27T08:51:36.978Z</time></trkpt><trkpt lat="39.90570910449348" lon="8.83254191650873"><ele>378.6</ele><time>2026-04-27T08:51:37.978Z</time></trkpt><trkpt lat="39.90567931503356" lon="8.832409854935825"><ele>377.4</ele><time>2026-04-27T08:51:38.978Z</time></trkpt><trkpt lat="39.90565191004695" lon="8.832277299134224"><ele>376.2</ele><time>2026-04-27T08:51:39.978Z</time></trkpt><trkpt lat="39.90562940622882" lon="8.832159724345649"><ele>375.0</ele><time>2026-04-27T08:51:40.978Z</time></trkpt><trkpt lat="39.905609360348" lon="8.832039827909503"><ele>375.0</ele><time>2026-04-27T08:51:41.978Z</time></trkpt><trkpt lat="39.905591868239156" lon="8.831925442405085"><ele>375.0</ele><time>2026-04-27T08:51:42.978Z</time></trkpt><trkpt lat="39.9055835377849" lon="8.831825495937716"><ele>375.0</ele><time>2026-04-27T08:51:43.978Z</time></trkpt><trkpt lat="39.90558503877752" lon="8.83172207160886"><ele>375.0</ele><time>2026-04-27T08:51:44.978Z</time></trkpt><trkpt lat="39.90558935069344" lon="8.831600413994945"><ele>375.0</ele><time>2026-04-27T08:51:45.978Z</time></trkpt><trkpt lat="39.90559952286166" lon="8.83149222024483"><ele>375.0</ele><time>2026-04-27T08:51:46.978Z</time></trkpt><trkpt lat="39.90561340028627" lon="8.831378640408927"><ele>374.0</ele><time>2026-04-27T08:51:47.978Z</time></trkpt><trkpt lat="39.905623690631245" lon="8.831275115757018"><ele>373.0</ele><time>2026-04-27T08:51:48.978Z</time></trkpt><trkpt lat="39.90562833176265" lon="8.831183688126595"><ele>372.0</ele><time>2026-04-27T08:51:49.978Z</time></trkpt><trkpt lat="39.905627785636796" lon="8.831085747941282"><ele>371.0</ele><time>2026-04-27T08:51:50.978Z</time></trkpt><trkpt lat="39.90561815759912" lon="8.830972107121815"><ele>370.0</ele><time>2026-04-27T08:51:51.978Z</time></trkpt><trkpt lat="39.90560127858558" lon="8.830854930348561"><ele>369.0</ele><time>2026-04-27T08:51:52.978Z</time></trkpt><trkpt lat="39.90558644779836" lon="8.83072492238638"><ele>366.0</ele><time>2026-04-27T08:51:53.978Z</time></trkpt><trkpt lat="39.90556999843254" lon="8.830592500173113"><ele>363.0</ele><time>2026-04-27T08:51:54.978Z</time></trkpt><trkpt lat="39.90554751165338" lon="8.830447565131406"><ele>360.0</ele><time>2026-04-27T08:51:55.978Z</time></trkpt><trkpt lat="39.905525101552975" lon="8.830296581800662"><ele>357.0</ele><time>2026-04-27T08:51:56.977Z</time></trkpt><trkpt lat="39.90549767856277" lon="8.830146042828217"><ele>353.5</ele><time>2026-04-27T08:51:57.978Z</time></trkpt><trkpt lat="39.90546906890107" lon="8.829982935186054"><ele>350.0</ele><time>2026-04-27T08:51:58.978Z</time></trkpt><trkpt lat="39.905446550780155" lon="8.829821365783927"><ele>346.5</ele><time>2026-04-27T08:51:59.977Z</time></trkpt><trkpt lat="39.90543417438671" lon="8.829653585350433"><ele>343.0</ele><time>2026-04-27T08:52:00.978Z</time></trkpt><trkpt lat="39.90540464495107" lon="8.829498857806932"><ele>343.0</ele><time>2026-04-27T08:52:01.978Z</time></trkpt><trkpt lat="39.90538311710768" lon="8.829338846423846"><ele>343.0</ele><time>2026-04-27T08:52:02.978Z</time></trkpt><trkpt lat="39.90536676524309" lon="8.829190232616531"><ele>343.0</ele><time>2026-04-27T08:52:03.977Z</time></trkpt><trkpt lat="39.9053437019257" lon="8.829052423352296"><ele>343.0</ele><time>2026-04-27T08:52:04.977Z</time></trkpt><trkpt lat="39.90531060962423" lon="8.828915956764751"><ele>341.0</ele><time>2026-04-27T08:52:05.978Z</time></trkpt><trkpt lat="39.90526983792117" lon="8.828779378466907"><ele>339.0</ele><time>2026-04-27T08:52:06.977Z</time></trkpt><trkpt lat="39.90522228907466" lon="8.828638543877721"><ele>337.0</ele><time>2026-04-27T08:52:07.977Z</time></trkpt><trkpt lat="39.90516767747897" lon="8.828499600280894"><ele>335.0</ele><time>2026-04-27T08:52:08.978Z</time></trkpt><trkpt lat="39.90510442513223" lon="8.828362708678622"><ele>336.5</ele><time>2026-04-27T08:52:09.978Z</time></trkpt><trkpt lat="39.90503652024" lon="8.828229050106842"><ele>338.0</ele><time>2026-04-27T08:52:10.978Z</time></trkpt><trkpt lat="39.90497758816988" lon="8.828096203104016"><ele>339.5</ele><time>2026-04-27T08:52:11.978Z</time></trkpt><trkpt lat="39.90491234344793" lon="8.827969133746153"><ele>341.0</ele><time>2026-04-27T08:52:12.978Z</time></trkpt><trkpt lat="39.904846160988555" lon="8.82783371930433"><ele>341.0</ele><time>2026-04-27T08:52:13.978Z</time></trkpt><trkpt lat="39.90477806709971" lon="8.827709026163218"><ele>341.0</ele><time>2026-04-27T08:52:14.978Z</time></trkpt><trkpt lat="39.90470078151366" lon="8.827580251349017"><ele>341.0</ele><time>2026-04-27T08:52:15.978Z</time></trkpt><trkpt lat="39.90461380286266" lon="8.827456907681782"><ele>341.0</ele><time>2026-04-27T08:52:16.978Z</time></trkpt><trkpt lat="39.90452373633963" lon="8.827327433181189"><ele>343.0</ele><time>2026-04-27T08:52:17.978Z</time></trkpt><trkpt lat="39.904436936619724" lon="8.827203822070288"><ele>345.0</ele><time>2026-04-27T08:52:18.978Z</time></trkpt><trkpt lat="39.90436020929002" lon="8.82707190539544"><ele>347.0</ele><time>2026-04-27T08:52:19.978Z</time></trkpt><trkpt lat="39.90428509609459" lon="8.82693172797435"><ele>349.0</ele><time>2026-04-27T08:52:20.978Z</time></trkpt><trkpt lat="39.90421999248046" lon="8.826790232516286"><ele>349.79999999999995</ele><time>2026-04-27T08:52:21.978Z</time></trkpt><trkpt lat="39.90417057146134" lon="8.826652851711865"><ele>350.59999999999997</ele><time>2026-04-27T08:52:22.978Z</time></trkpt><trkpt lat="39.90414524642998" lon="8.826527098267022"><ele>351.4</ele><time>2026-04-27T08:52:23.978Z</time></trkpt><trkpt lat="39.90413265888074" lon="8.826388258570558"><ele>352.2</ele><time>2026-04-27T08:52:24.978Z</time></trkpt><trkpt lat="39.9041252470445" lon="8.826236627976906"><ele>353.0</ele><time>2026-04-27T08:52:25.978Z</time></trkpt><trkpt lat="39.90412414823928" lon="8.826076451920343"><ele>352.75</ele><time>2026-04-27T08:52:26.978Z</time></trkpt><trkpt lat="39.90412046826321" lon="8.825907003081953"><ele>352.5</ele><time>2026-04-27T08:52:27.978Z</time></trkpt><trkpt lat="39.904116849616145" lon="8.825740909474028"><ele>352.25</ele><time>2026-04-27T08:52:28.978Z</time></trkpt><trkpt lat="39.90411234617342" lon="8.825584027152361"><ele>352.0</ele><time>2026-04-27T08:52:29.978Z</time></trkpt><trkpt lat="39.9041003202295" lon="8.82542494982963"><ele>352.0</ele><time>2026-04-27T08:52:30.978Z</time></trkpt><trkpt lat="39.9040865439316" lon="8.825280132808029"><ele>352.0</ele><time>2026-04-27T08:52:31.978Z</time></trkpt><trkpt lat="39.90406818720716" lon="8.825151396384394"><ele>352.0</ele><time>2026-04-27T08:52:32.978Z</time></trkpt><trkpt lat="39.904029458408566" lon="8.825027370897535"><ele>352.0</ele><time>2026-04-27T08:52:33.978Z</time></trkpt><trkpt lat="39.90399541156708" lon="8.82489822187202"><ele>352.0</ele><time>2026-04-27T08:52:34.978Z</time></trkpt><trkpt lat="39.90393172590317" lon="8.824772968441547"><ele>351.0</ele><time>2026-04-27T08:52:35.978Z</time></trkpt><trkpt lat="39.903854536138546" lon="8.82465513212485"><ele>350.0</ele><time>2026-04-27T08:52:36.978Z</time></trkpt><trkpt lat="39.90375956429305" lon="8.824543512741723"><ele>349.0</ele><time>2026-04-27T08:52:37.978Z</time></trkpt><trkpt lat="39.903675044778794" lon="8.824409604930931"><ele>348.0</ele><time>2026-04-27T08:52:38.978Z</time></trkpt><trkpt lat="39.90358773964442" lon="8.824299749197067"><ele>347.25</ele><time>2026-04-27T08:52:39.978Z</time></trkpt><trkpt lat="39.903501816254405" lon="8.82418824803006"><ele>346.5</ele><time>2026-04-27T08:52:40.978Z</time></trkpt><trkpt lat="39.90340737932036" lon="8.824070550003587"><ele>345.75</ele><time>2026-04-27T08:52:41.978Z</time></trkpt><trkpt lat="39.903313346509144" lon="8.823958123220455"><ele>345.0</ele><time>2026-04-27T08:52:42.978Z</time></trkpt><trkpt lat="39.90322968045377" lon="8.823856888335813"><ele>345.0</ele><time>2026-04-27T08:52:43.978Z</time></trkpt><trkpt lat="39.903148698863504" lon="8.823767784893079"><ele>345.0</ele><time>2026-04-27T08:52:44.978Z</time></trkpt><trkpt lat="39.90306615003404" lon="8.823670729672251"><ele>345.0</ele><time>2026-04-27T08:52:45.978Z</time></trkpt><trkpt lat="39.902994344680295" lon="8.823593896886022"><ele>345.0</ele><time>2026-04-27T08:52:46.978Z</time></trkpt><trkpt lat="39.90292072959961" lon="8.823514727242543"><ele>345.0</ele><time>2026-04-27T08:52:47.978Z</time></trkpt><trkpt lat="39.902855599032804" lon="8.823440710029216"><ele>345.1666666666667</ele><time>2026-04-27T08:52:48.978Z</time></trkpt><trkpt lat="39.90278855600085" lon="8.82336743135724"><ele>345.3333333333333</ele><time>2026-04-27T08:52:49.978Z</time></trkpt><trkpt lat="39.90271953217858" lon="8.823290263521766"><ele>345.5</ele><time>2026-04-27T08:52:50.978Z</time></trkpt><trkpt lat="39.90266250292054" lon="8.823223615057488"><ele>345.66666666666663</ele><time>2026-04-27T08:52:51.978Z</time></trkpt><trkpt lat="39.90259406209775" lon="8.82314341747253"><ele>345.8333333333333</ele><time>2026-04-27T08:52:52.978Z</time></trkpt><trkpt lat="39.90251786228653" lon="8.823056461733577"><ele>346.0</ele><time>2026-04-27T08:52:53.978Z</time></trkpt><trkpt lat="39.90243805336137" lon="8.82297908545228"><ele>343.6</ele><time>2026-04-27T08:52:54.978Z</time></trkpt><trkpt lat="39.90235095730307" lon="8.822894203440748"><ele>341.20000000000005</ele><time>2026-04-27T08:52:55.978Z</time></trkpt><trkpt lat="39.90226093988696" lon="8.822812217578345"><ele>338.79999999999995</ele><time>2026-04-27T08:52:56.978Z</time></trkpt><trkpt lat="39.90217572137087" lon="8.822729773223807"><ele>336.4</ele><time>2026-04-27T08:52:57.978Z</time></trkpt><trkpt lat="39.902101772662945" lon="8.822645609541535"><ele>334.0</ele><time>2026-04-27T08:52:58.978Z</time></trkpt><trkpt lat="39.90203007088988" lon="8.822562484615794"><ele>330.4</ele><time>2026-04-27T08:52:59.978Z</time></trkpt><trkpt lat="39.90196821057643" lon="8.822457117075102"><ele>326.79999999999995</ele><time>2026-04-27T08:53:00.978Z</time></trkpt><trkpt lat="39.90191024906687" lon="8.8223444065302"><ele>323.20000000000005</ele><time>2026-04-27T08:53:01.978Z</time></trkpt><trkpt lat="39.90187040206947" lon="8.822227750316902"><ele>319.6</ele><time>2026-04-27T08:53:02.978Z</time></trkpt><trkpt lat="39.901843476496474" lon="8.822091099605823"><ele>316.0</ele><time>2026-04-27T08:53:03.978Z</time></trkpt><trkpt lat="39.901831998790584" lon="8.82194021051758"><ele>315.2</ele><time>2026-04-27T08:53:04.978Z</time></trkpt><trkpt lat="39.901811831582755" lon="8.821782908527462"><ele>314.40000000000003</ele><time>2026-04-27T08:53:05.978Z</time></trkpt><trkpt lat="39.90176946700761" lon="8.821656022482358"><ele>313.6</ele><time>2026-04-27T08:53:06.978Z</time></trkpt><trkpt lat="39.90175668161663" lon="8.821554915502096"><ele>312.8</ele><time>2026-04-27T08:53:07.978Z</time></trkpt><trkpt lat="39.90171066128467" lon="8.821445642736169"><ele>312.0</ele><time>2026-04-27T08:53:08.978Z</time></trkpt><trkpt lat="39.90166495269713" lon="8.82133568993516"><ele>312.0</ele><time>2026-04-27T08:53:09.978Z</time></trkpt><trkpt lat="39.90161134587747" lon="8.821217375952903"><ele>312.0</ele><time>2026-04-27T08:53:10.978Z</time></trkpt><trkpt lat="39.901539245234744" lon="8.821102095811659"><ele>312.0</ele><time>2026-04-27T08:53:11.978Z</time></trkpt><trkpt lat="39.90145622041895" lon="8.820976320612841"><ele>312.0</ele><time>2026-04-27T08:53:12.978Z</time></trkpt><trkpt lat="39.90138842854192" lon="8.820841519438007"><ele>311.0</ele><time>2026-04-27T08:53:13.978Z</time></trkpt><trkpt lat="39.901290357068795" lon="8.820711239955973"><ele>310.0</ele><time>2026-04-27T08:53:14.978Z</time></trkpt><trkpt lat="39.90121007257189" lon="8.820579291818635"><ele>309.0</ele><time>2026-04-27T08:53:15.978Z</time></trkpt><trkpt lat="39.901135229088645" lon="8.820465391814668"><ele>308.0</ele><time>2026-04-27T08:53:16.978Z</time></trkpt><trkpt lat="39.901072098893685" lon="8.820385946984189"><ele>308.0</ele><time>2026-04-27T08:53:17.978Z</time></trkpt><trkpt lat="39.901018888392" lon="8.82033660420072"><ele>308.0</ele><time>2026-04-27T08:53:18.978Z</time></trkpt><trkpt lat="39.90095179422627" lon="8.820297338990684"><ele>308.0</ele><time>2026-04-27T08:53:19.978Z</time></trkpt><trkpt lat="39.90089119618576" lon="8.820270363169787"><ele>308.0</ele><time>2026-04-27T08:53:20.978Z</time></trkpt><trkpt lat="39.90082437175423" lon="8.820218796287358"><ele>308.0</ele><time>2026-04-27T08:53:21.978Z</time></trkpt><trkpt lat="39.900760580258385" lon="8.820195747606975"><ele>308.0</ele><time>2026-04-27T08:53:23.978Z</time></trkpt><trkpt lat="39.90065695991" lon="8.820144232749932"><ele>307.33333333333337</ele><time>2026-04-27T08:54:05.977Z</time></trkpt><trkpt lat="39.90054601669644" lon="8.820092865339276"><ele>306.6666666666667</ele><time>2026-04-27T08:54:07.977Z</time></trkpt><trkpt lat="39.90048561655637" lon="8.82005638246865"><ele>306.0</ele><time>2026-04-27T08:54:08.977Z</time></trkpt><trkpt lat="39.90042347314058" lon="8.820020763101786"><ele>305.3333333333333</ele><time>2026-04-27T08:54:09.977Z</time></trkpt><trkpt lat="39.9003548934673" lon="8.819980329272926"><ele>304.66666666666663</ele><time>2026-04-27T08:54:10.977Z</time></trkpt><trkpt lat="39.90028150096673" lon="8.8199327287723"><ele>304.0</ele><time>2026-04-27T08:54:11.977Z</time></trkpt><trkpt lat="39.90020187757853" lon="8.819875921860742"><ele>304.0</ele><time>2026-04-27T08:54:12.977Z</time></trkpt><trkpt lat="39.900130732773945" lon="8.81980823451557"><ele>304.0</ele><time>2026-04-27T08:54:13.977Z</time></trkpt><trkpt lat="39.90007993792864" lon="8.81971595570894"><ele>304.0</ele><time>2026-04-27T08:54:14.977Z</time></trkpt><trkpt lat="39.90001359840459" lon="8.819654604989703"><ele>304.0</ele><time>2026-04-27T08:54:15.977Z</time></trkpt><trkpt lat="39.89996118983019" lon="8.819575705660256"><ele>304.0</ele><time>2026-04-27T08:54:16.977Z</time></trkpt><trkpt lat="39.89991383428685" lon="8.81950054397006"><ele>304.0</ele><time>2026-04-27T08:54:17.977Z</time></trkpt><trkpt lat="39.89986480711427" lon="8.819420047889855"><ele>302.59999999999997</ele><time>2026-04-27T08:54:18.977Z</time></trkpt><trkpt lat="39.899819340125106" lon="8.819322751078534"><ele>301.2</ele><time>2026-04-27T08:54:19.977Z</time></trkpt><trkpt lat="39.89977975226658" lon="8.819221234643454"><ele>299.79999999999995</ele><time>2026-04-27T08:54:20.977Z</time></trkpt><trkpt lat="39.89974050470445" lon="8.819108980973343"><ele>298.4</ele><time>2026-04-27T08:54:21.977Z</time></trkpt><trkpt lat="39.899700793664884" lon="8.819002998633552"><ele>297.0</ele><time>2026-04-27T08:54:22.977Z</time></trkpt><trkpt lat="39.89966395218929" lon="8.81887557501835"><ele>295.2</ele><time>2026-04-27T08:54:23.977Z</time></trkpt><trkpt lat="39.89962232797271" lon="8.818743688181558"><ele>293.4</ele><time>2026-04-27T08:54:24.977Z</time></trkpt><trkpt lat="39.89957135756274" lon="8.818596540862433"><ele>291.6</ele><time>2026-04-27T08:54:25.977Z</time></trkpt><trkpt lat="39.899527706373675" lon="8.818462770298229"><ele>289.8</ele><time>2026-04-27T08:54:26.977Z</time></trkpt><trkpt lat="39.89948924879117" lon="8.818340256125632"><ele>288.0</ele><time>2026-04-27T08:54:27.977Z</time></trkpt><trkpt lat="39.89944258526519" lon="8.818216441446346"><ele>287.8333333333333</ele><time>2026-04-27T08:54:28.977Z</time></trkpt><trkpt lat="39.899396275295224" lon="8.81810606024582"><ele>287.6666666666667</ele><time>2026-04-27T08:54:29.977Z</time></trkpt><trkpt lat="39.899353942134496" lon="8.818004701905316"><ele>287.5</ele><time>2026-04-27T08:54:30.977Z</time></trkpt><trkpt lat="39.89932618401813" lon="8.817910341650478"><ele>287.33333333333337</ele><time>2026-04-27T08:54:31.977Z</time></trkpt><trkpt lat="39.89927479840278" lon="8.817826214477053"><ele>287.1666666666667</ele><time>2026-04-27T08:54:32.977Z</time></trkpt><trkpt lat="39.89921260112733" lon="8.817751497342464"><ele>287.0</ele><time>2026-04-27T08:54:33.977Z</time></trkpt><trkpt lat="39.89913825183124" lon="8.81769155188028"><ele>287.0</ele><time>2026-04-27T08:54:34.977Z</time></trkpt><trkpt lat="39.89906082483813" lon="8.817652362089099"><ele>287.0</ele><time>2026-04-27T08:54:35.977Z</time></trkpt><trkpt lat="39.898972763046345" lon="8.817618840622623"><ele>287.0</ele><time>2026-04-27T08:54:36.977Z</time></trkpt><trkpt lat="39.89886914239958" lon="8.81759792718409"><ele>287.0</ele><time>2026-04-27T08:54:37.977Z</time></trkpt><trkpt lat="39.898773209031916" lon="8.817555343625994"><ele>287.0</ele><time>2026-04-27T08:54:38.977Z</time></trkpt><trkpt lat="39.8986745215453" lon="8.817542221108463"><ele>285.6666666666667</ele><time>2026-04-27T08:54:39.977Z</time></trkpt><trkpt lat="39.89859128741183" lon="8.8174643050563"><ele>284.33333333333337</ele><time>2026-04-27T08:54:40.977Z</time></trkpt><trkpt lat="39.898507951007254" lon="8.817400203488418"><ele>283.0</ele><time>2026-04-27T08:54:41.977Z</time></trkpt><trkpt lat="39.8984359596985" lon="8.817365369605573"><ele>281.6666666666667</ele><time>2026-04-27T08:54:42.977Z</time></trkpt><trkpt lat="39.8983753927182" lon="8.817287779355974"><ele>280.3333333333333</ele><time>2026-04-27T08:54:44.977Z</time></trkpt><trkpt lat="39.89830605751711" lon="8.81721875276862"><ele>279.0</ele><time>2026-04-27T08:54:46.977Z</time></trkpt><trkpt lat="39.89819077001227" lon="8.817177853442717"><ele>279.0</ele><time>2026-04-27T08:54:48.977Z</time></trkpt><trkpt lat="39.89812604758416" lon="8.817148940810059"><ele>279.0</ele><time>2026-04-27T08:54:49.977Z</time></trkpt><trkpt lat="39.89808650923592" lon="8.81668600278168"><ele>279.0</ele><time>2026-04-27T08:54:51.977Z</time></trkpt><trkpt lat="39.89804170075873" lon="8.81660951739132"><ele>277.2</ele><time>2026-04-27T08:54:52.977Z</time></trkpt><trkpt lat="39.89795625538949" lon="8.816477533758556"><ele>275.4</ele><time>2026-04-27T08:54:54.977Z</time></trkpt><trkpt lat="39.89790021654025" lon="8.816396897195315"><ele>273.6</ele><time>2026-04-27T08:54:55.977Z</time></trkpt><trkpt lat="39.89784169290882" lon="8.816305856901387"><ele>271.8</ele><time>2026-04-27T08:54:56.977Z</time></trkpt><trkpt lat="39.89778772594367" lon="8.816219198773332"><ele>270.0</ele><time>2026-04-27T08:54:57.977Z</time></trkpt><trkpt lat="39.89773313320474" lon="8.81614203585685"><ele>270.0</ele><time>2026-04-27T08:54:58.977Z</time></trkpt><trkpt lat="39.89767562626291" lon="8.816061173784346"><ele>270.0</ele><time>2026-04-27T08:54:59.977Z</time></trkpt><trkpt lat="39.89761334116506" lon="8.81598895657042"><ele>270.0</ele><time>2026-04-27T08:55:00.977Z</time></trkpt><trkpt lat="39.89753936877384" lon="8.815914677748856"><ele>270.0</ele><time>2026-04-27T08:55:01.977Z</time></trkpt><trkpt lat="39.897463022517634" lon="8.815835289726659"><ele>270.0</ele><time>2026-04-27T08:55:02.977Z</time></trkpt><trkpt lat="39.897387886913776" lon="8.815746661501468"><ele>269.5</ele><time>2026-04-27T08:55:03.977Z</time></trkpt><trkpt lat="39.89732849012727" lon="8.81566700332381"><ele>269.0</ele><time>2026-04-27T08:55:04.977Z</time></trkpt><trkpt lat="39.89727659362131" lon="8.815590206793674"><ele>268.5</ele><time>2026-04-27T08:55:05.977Z</time></trkpt><trkpt lat="39.897214866116364" lon="8.815509098832612"><ele>268.0</ele><time>2026-04-27T08:55:06.977Z</time></trkpt><trkpt lat="39.89715320177125" lon="8.815432115270418"><ele>267.5</ele><time>2026-04-27T08:55:07.977Z</time></trkpt><trkpt lat="39.89710023322814" lon="8.815357464993445"><ele>267.0</ele><time>2026-04-27T08:55:08.977Z</time></trkpt><trkpt lat="39.89704114017826" lon="8.815294763961251"><ele>267.0</ele><time>2026-04-27T08:55:09.977Z</time></trkpt><trkpt lat="39.896967723164714" lon="8.815234008557054"><ele>267.0</ele><time>2026-04-27T08:55:10.977Z</time></trkpt><trkpt lat="39.89689122874341" lon="8.815173273622397"><ele>267.0</ele><time>2026-04-27T08:55:11.976Z</time></trkpt><trkpt lat="39.89682032193077" lon="8.815108594231706"><ele>267.0</ele><time>2026-04-27T08:55:12.975Z</time></trkpt><trkpt lat="39.896772187886214" lon="8.81503605989398"><ele>267.0</ele><time>2026-04-27T08:55:13.973Z</time></trkpt><trkpt lat="39.89671549880693" lon="8.814955856003596"><ele>267.0</ele><time>2026-04-27T08:55:14.972Z</time></trkpt><trkpt lat="39.896641730310016" lon="8.81487666500127"><ele>266.2</ele><time>2026-04-27T08:55:15.97Z</time></trkpt><trkpt lat="39.89655940360388" lon="8.814800741174057"><ele>265.4</ele><time>2026-04-27T08:55:16.969Z</time></trkpt><trkpt lat="39.89647426198338" lon="8.814736474661785"><ele>264.6</ele><time>2026-04-27T08:55:17.968Z</time></trkpt><trkpt lat="39.89639111573971" lon="8.814698588110945"><ele>263.8</ele><time>2026-04-27T08:55:18.967Z</time></trkpt><trkpt lat="39.89630926151114" lon="8.814652013292209"><ele>263.0</ele><time>2026-04-27T08:55:19.966Z</time></trkpt><trkpt lat="39.896216918032444" lon="8.814602339158029"><ele>263.0</ele><time>2026-04-27T08:55:20.965Z</time></trkpt><trkpt lat="39.89612819480023" lon="8.814551098640388"><ele>263.0</ele><time>2026-04-27T08:55:21.964Z</time></trkpt><trkpt lat="39.89603499831704" lon="8.814493297741937"><ele>263.0</ele><time>2026-04-27T08:55:22.963Z</time></trkpt><trkpt lat="39.89594407248425" lon="8.814435282823176"><ele>263.0</ele><time>2026-04-27T08:55:23.962Z</time></trkpt><trkpt lat="39.89585548295568" lon="8.814377790066017"><ele>263.0</ele><time>2026-04-27T08:55:24.962Z</time></trkpt><trkpt lat="39.89576688270114" lon="8.814315840597596"><ele>261.1666666666667</ele><time>2026-04-27T08:55:25.961Z</time></trkpt><trkpt lat="39.89568228004893" lon="8.814258247312985"><ele>259.33333333333337</ele><time>2026-04-27T08:55:26.96Z</time></trkpt><trkpt lat="39.895615513771574" lon="8.814214593113636"><ele>257.5</ele><time>2026-04-27T08:55:27.96Z</time></trkpt><trkpt lat="39.89555246179183" lon="8.814185414228122"><ele>255.66666666666669</ele><time>2026-04-27T08:55:28.959Z</time></trkpt><trkpt lat="39.8954733159576" lon="8.81418692906202"><ele>253.83333333333334</ele><time>2026-04-27T08:55:29.959Z</time></trkpt><trkpt lat="39.89539383172538" lon="8.814201279855936"><ele>252.0</ele><time>2026-04-27T08:55:30.958Z</time></trkpt><trkpt lat="39.89532774214671" lon="8.814230242573478"><ele>252.0</ele><time>2026-04-27T08:55:31.958Z</time></trkpt><trkpt lat="39.89521235420159" lon="8.814221715254595"><ele>252.0</ele><time>2026-04-27T08:55:33.957Z</time></trkpt><trkpt lat="39.89511675675151" lon="8.814123628065795"><ele>252.0</ele><time>2026-04-27T08:55:35.956Z</time></trkpt><trkpt lat="39.89504194109738" lon="8.814080504165203"><ele>252.0</ele><time>2026-04-27T08:55:36.956Z</time></trkpt><trkpt lat="39.89495246010939" lon="8.814059078775667"><ele>252.0</ele><time>2026-04-27T08:55:37.955Z</time></trkpt><trkpt lat="39.894864883380265" lon="8.814037675490445"><ele>251.8</ele><time>2026-04-27T08:55:38.955Z</time></trkpt><trkpt lat="39.894780648274" lon="8.814021201082687"><ele>251.6</ele><time>2026-04-27T08:55:39.955Z</time></trkpt><trkpt lat="39.894704688921436" lon="8.814004590607933"><ele>251.40000000000003</ele><time>2026-04-27T08:55:40.955Z</time></trkpt><trkpt lat="39.894612326593865" lon="8.813978657688681"><ele>251.20000000000002</ele><time>2026-04-27T08:55:41.954Z</time></trkpt><trkpt lat="39.89451600113941" lon="8.813947639542945"><ele>251.0</ele><time>2026-04-27T08:55:42.954Z</time></trkpt><trkpt lat="39.89441929240807" lon="8.813919809462183"><ele>251.0</ele><time>2026-04-27T08:55:43.954Z</time></trkpt><trkpt lat="39.89432716224079" lon="8.813897080515995"><ele>251.00000000000003</ele><time>2026-04-27T08:55:44.954Z</time></trkpt><trkpt lat="39.89423370428963" lon="8.8138824823632"><ele>251.00000000000003</ele><time>2026-04-27T08:55:45.954Z</time></trkpt><trkpt lat="39.89413832423671" lon="8.813855792538233"><ele>251.0</ele><time>2026-04-27T08:55:46.953Z</time></trkpt><trkpt lat="39.89404834205988" lon="8.813826561658695"><ele>251.0</ele><time>2026-04-27T08:55:47.953Z</time></trkpt><trkpt lat="39.89395089640223" lon="8.813804586892825"><ele>250.50000000000003</ele><time>2026-04-27T08:55:48.953Z</time></trkpt><trkpt lat="39.89386172703939" lon="8.813779806861348"><ele>250.0</ele><time>2026-04-27T08:55:49.953Z</time></trkpt><trkpt lat="39.89377542148597" lon="8.81374834122961"><ele>249.5</ele><time>2026-04-27T08:55:50.953Z</time></trkpt><trkpt lat="39.893696775073224" lon="8.813706950790337"><ele>249.0</ele><time>2026-04-27T08:55:51.953Z</time></trkpt><trkpt lat="39.89360837787242" lon="8.813661080127474"><ele>248.50000000000003</ele><time>2026-04-27T08:55:52.952Z</time></trkpt><trkpt lat="39.893532195573904" lon="8.813607902688926"><ele>248.0</ele><time>2026-04-27T08:55:53.952Z</time></trkpt><trkpt lat="39.89348155450727" lon="8.813550480703809"><ele>247.33333333333334</ele><time>2026-04-27T08:55:54.952Z</time></trkpt><trkpt lat="39.893404992313705" lon="8.813458913244995"><ele>246.66666666666669</ele><time>2026-04-27T08:55:56.952Z</time></trkpt><trkpt lat="39.89333314943396" lon="8.813396840850876"><ele>246.0</ele><time>2026-04-27T08:55:58.952Z</time></trkpt><trkpt lat="39.893270487761384" lon="8.813363452249801"><ele>245.33333333333331</ele><time>2026-04-27T08:55:59.952Z</time></trkpt><trkpt lat="39.8932043636982" lon="8.813303686047204"><ele>244.66666666666666</ele><time>2026-04-27T08:56:00.952Z</time></trkpt><trkpt lat="39.893149202768825" lon="8.813225840680627"><ele>244.0</ele><time>2026-04-27T08:56:01.952Z</time></trkpt><trkpt lat="39.89310519473856" lon="8.813142852215947"><ele>243.99999999999997</ele><time>2026-04-27T08:56:02.952Z</time></trkpt><trkpt lat="39.89306378005728" lon="8.813046625257638"><ele>244.0</ele><time>2026-04-27T08:56:03.952Z</time></trkpt><trkpt lat="39.89303007939092" lon="8.812942361404525"><ele>244.0</ele><time>2026-04-27T08:56:04.951Z</time></trkpt><trkpt lat="39.89299601123151" lon="8.812822808471262"><ele>244.0</ele><time>2026-04-27T08:56:05.951Z</time></trkpt><trkpt lat="39.8929578960472" lon="8.812721793215085"><ele>243.99999999999997</ele><time>2026-04-27T08:56:06.951Z</time></trkpt><trkpt lat="39.89291306138618" lon="8.812629461908804"><ele>244.0</ele><time>2026-04-27T08:56:07.951Z</time></trkpt><trkpt lat="39.89286757541713" lon="8.8125624890518"><ele>244.16666666666666</ele><time>2026-04-27T08:56:08.95Z</time></trkpt><trkpt lat="39.89277821978758" lon="8.812471879196615"><ele>244.33333333333331</ele><time>2026-04-27T08:56:10.95Z</time></trkpt><trkpt lat="39.892711530405236" lon="8.81244279115091"><ele>244.5</ele><time>2026-04-27T08:56:11.95Z</time></trkpt><trkpt lat="39.8926430282672" lon="8.812422148026615"><ele>244.66666666666669</ele><time>2026-04-27T08:56:12.95Z</time></trkpt><trkpt lat="39.89256682516074" lon="8.812396479076419"><ele>244.83333333333334</ele><time>2026-04-27T08:56:13.95Z</time></trkpt><trkpt lat="39.89250176137267" lon="8.812386983339959"><ele>245.0</ele><time>2026-04-27T08:56:14.95Z</time></trkpt><trkpt lat="39.8924320811165" lon="8.812377165163086"><ele>243.66666666666669</ele><time>2026-04-27T08:56:15.95Z</time></trkpt><trkpt lat="39.89236094546273" lon="8.812355206271143"><ele>242.33333333333334</ele><time>2026-04-27T08:56:16.95Z</time></trkpt><trkpt lat="39.89228864183708" lon="8.812334784677075"><ele>241.0</ele><time>2026-04-27T08:56:17.95Z</time></trkpt><trkpt lat="39.89221144167162" lon="8.812314944710344"><ele>239.66666666666669</ele><time>2026-04-27T08:56:18.95Z</time></trkpt><trkpt lat="39.89214187609066" lon="8.812282893801708"><ele>238.33333333333334</ele><time>2026-04-27T08:56:19.949Z</time></trkpt><trkpt lat="39.89207078534018" lon="8.812243306270794"><ele>237.0</ele><time>2026-04-27T08:56:20.949Z</time></trkpt><trkpt lat="39.89200140053577" lon="8.812209597375805"><ele>237.0</ele><time>2026-04-27T08:56:21.95Z</time></trkpt><trkpt lat="39.891933109388766" lon="8.812174039177764"><ele>237.0</ele><time>2026-04-27T08:56:22.95Z</time></trkpt><trkpt lat="39.891870510428596" lon="8.812132902392573"><ele>237.0</ele><time>2026-04-27T08:56:23.95Z</time></trkpt><trkpt lat="39.89180504190152" lon="8.812076072153543"><ele>237.0</ele><time>2026-04-27T08:56:24.95Z</time></trkpt><trkpt lat="39.89175450324881" lon="8.812003709580557"><ele>237.0</ele><time>2026-04-27T08:56:25.95Z</time></trkpt><trkpt lat="39.8916948114928" lon="8.811910543866182"><ele>237.0</ele><time>2026-04-27T08:56:26.95Z</time></trkpt><trkpt lat="39.89163461448676" lon="8.81182440568544"><ele>235.66666666666666</ele><time>2026-04-27T08:56:27.95Z</time></trkpt><trkpt lat="39.89158676107939" lon="8.81172168847359"><ele>234.33333333333331</ele><time>2026-04-27T08:56:28.95Z</time></trkpt><trkpt lat="39.89155554822309" lon="8.811617972462027"><ele>233.0</ele><time>2026-04-27T08:56:29.95Z</time></trkpt><trkpt lat="39.89151718160035" lon="8.811526514938704"><ele>231.66666666666666</ele><time>2026-04-27T08:56:30.95Z</time></trkpt><trkpt lat="39.8914534416115" lon="8.81142643254536"><ele>230.33333333333331</ele><time>2026-04-27T08:56:32.95Z</time></trkpt><trkpt lat="39.891407067620065" lon="8.811344750053244"><ele>229.0</ele><time>2026-04-27T08:56:33.95Z</time></trkpt><trkpt lat="39.89134919446883" lon="8.811254223361153"><ele>229.0</ele><time>2026-04-27T08:56:34.95Z</time></trkpt><trkpt lat="39.89129064811331" lon="8.811154981182101"><ele>228.99999999999997</ele><time>2026-04-27T08:56:35.95Z</time></trkpt><trkpt lat="39.89124593621609" lon="8.811040508570144"><ele>228.99999999999997</ele><time>2026-04-27T08:56:36.95Z</time></trkpt><trkpt lat="39.891215212399146" lon="8.810921249429176"><ele>229.0</ele><time>2026-04-27T08:56:37.95Z</time></trkpt><trkpt lat="39.89118585642785" lon="8.810817071607834"><ele>229.0</ele><time>2026-04-27T08:56:38.949Z</time></trkpt><trkpt lat="39.891144298369696" lon="8.810724582225422"><ele>228.66666666666666</ele><time>2026-04-27T08:56:39.949Z</time></trkpt><trkpt lat="39.891094258787646" lon="8.810642814295447"><ele>228.33333333333331</ele><time>2026-04-27T08:56:40.949Z</time></trkpt><trkpt lat="39.89104402258365" lon="8.810562529124477"><ele>228.0</ele><time>2026-04-27T08:56:41.949Z</time></trkpt><trkpt lat="39.89099714977289" lon="8.810472996293822"><ele>227.66666666666669</ele><time>2026-04-27T08:56:42.949Z</time></trkpt><trkpt lat="39.89096731952205" lon="8.81038053982293"><ele>227.33333333333334</ele><time>2026-04-27T08:56:43.949Z</time></trkpt><trkpt lat="39.89095013633567" lon="8.810271527180523"><ele>227.0</ele><time>2026-04-27T08:56:44.949Z</time></trkpt><trkpt lat="39.89092212460252" lon="8.810156931359144"><ele>227.0</ele><time>2026-04-27T08:56:45.949Z</time></trkpt><trkpt lat="39.89088113834679" lon="8.810037750598887"><ele>227.0</ele><time>2026-04-27T08:56:46.949Z</time></trkpt><trkpt lat="39.8908546785146" lon="8.809910353846899"><ele>227.0</ele><time>2026-04-27T08:56:47.949Z</time></trkpt><trkpt lat="39.89078694370402" lon="8.80981251143379"><ele>227.0</ele><time>2026-04-27T08:56:48.949Z</time></trkpt><trkpt lat="39.89073039827958" lon="8.80972666189567"><ele>227.0</ele><time>2026-04-27T08:56:49.949Z</time></trkpt><trkpt lat="39.89067036357258" lon="8.809618358740853"><ele>227.0</ele><time>2026-04-27T08:56:50.949Z</time></trkpt><trkpt lat="39.89061564501203" lon="8.809517510614336"><ele>227.0</ele><time>2026-04-27T08:56:51.949Z</time></trkpt><trkpt lat="39.89056406593424" lon="8.809406526934561"><ele>227.0</ele><time>2026-04-27T08:56:52.949Z</time></trkpt><trkpt lat="39.890512171025456" lon="8.809292305652873"><ele>227.0</ele><time>2026-04-27T08:56:53.949Z</time></trkpt><trkpt lat="39.89045188721854" lon="8.809195558290929"><ele>227.0</ele><time>2026-04-27T08:56:54.949Z</time></trkpt><trkpt lat="39.89041104142363" lon="8.80909505076195"><ele>227.50000000000003</ele><time>2026-04-27T08:56:55.949Z</time></trkpt><trkpt lat="39.89038056630451" lon="8.80899546746952"><ele>228.0</ele><time>2026-04-27T08:56:56.949Z</time></trkpt><trkpt lat="39.89034138989089" lon="8.808888495032962"><ele>228.5</ele><time>2026-04-27T08:56:57.949Z</time></trkpt><trkpt lat="39.89029872638318" lon="8.808781354088822"><ele>229.0</ele><time>2026-04-27T08:56:58.949Z</time></trkpt><trkpt lat="39.89023450425702" lon="8.808705381426194"><ele>229.50000000000003</ele><time>2026-04-27T08:56:59.949Z</time></trkpt><trkpt lat="39.890182290290774" lon="8.808627571258878"><ele>230.0</ele><time>2026-04-27T08:57:00.949Z</time></trkpt><trkpt lat="39.89010980623997" lon="8.808550038585185"><ele>227.6</ele><time>2026-04-27T08:57:01.949Z</time></trkpt><trkpt lat="39.89004088046169" lon="8.808455330357168"><ele>225.2</ele><time>2026-04-27T08:57:02.949Z</time></trkpt><trkpt lat="39.88996765183093" lon="8.808370722690833"><ele>222.8</ele><time>2026-04-27T08:57:03.949Z</time></trkpt><trkpt lat="39.889897941657814" lon="8.808283946280058"><ele>220.4</ele><time>2026-04-27T08:57:04.949Z</time></trkpt><trkpt lat="39.889827921744995" lon="8.8082157375128"><ele>218.0</ele><time>2026-04-27T08:57:05.949Z</time></trkpt><trkpt lat="39.8897555271862" lon="8.808146668705136"><ele>218.0</ele><time>2026-04-27T08:57:06.949Z</time></trkpt><trkpt lat="39.889655068435815" lon="8.808131748490773"><ele>218.0</ele><time>2026-04-27T08:57:07.949Z</time></trkpt><trkpt lat="39.88957206299611" lon="8.808078269433407"><ele>218.0</ele><time>2026-04-27T08:57:08.949Z</time></trkpt><trkpt lat="39.889479590260095" lon="8.808041136311159"><ele>218.0</ele><time>2026-04-27T08:57:09.949Z</time></trkpt><trkpt lat="39.88940020037494" lon="8.808026725508117"><ele>218.0</ele><time>2026-04-27T08:57:10.949Z</time></trkpt><trkpt lat="39.8893228914739" lon="8.807967126686716"><ele>216.16666666666669</ele><time>2026-04-27T08:57:11.949Z</time></trkpt><trkpt lat="39.88923293248931" lon="8.807944420243954"><ele>214.33333333333334</ele><time>2026-04-27T08:57:12.949Z</time></trkpt><trkpt lat="39.88915329841623" lon="8.80789882035789"><ele>212.5</ele><time>2026-04-27T08:57:13.949Z</time></trkpt><trkpt lat="39.88908654781716" lon="8.807846745343005"><ele>210.66666666666669</ele><time>2026-04-27T08:57:14.949Z</time></trkpt><trkpt lat="39.88901400691281" lon="8.807809199912798"><ele>208.83333333333334</ele><time>2026-04-27T08:57:15.949Z</time></trkpt><trkpt lat="39.8889440279757" lon="8.807788268173848"><ele>207.0</ele><time>2026-04-27T08:57:16.949Z</time></trkpt><trkpt lat="39.888879533051124" lon="8.807759174894572"><ele>207.0</ele><time>2026-04-27T08:57:17.949Z</time></trkpt><trkpt lat="39.88881125970866" lon="8.807725781112456"><ele>207.0</ele><time>2026-04-27T08:57:18.949Z</time></trkpt><trkpt lat="39.88874715879812" lon="8.807668053124637"><ele>207.0</ele><time>2026-04-27T08:57:19.949Z</time></trkpt><trkpt lat="39.88867256125552" lon="8.807626135172995"><ele>207.0</ele><time>2026-04-27T08:57:20.949Z</time></trkpt><trkpt lat="39.8885988918982" lon="8.80757879460353"><ele>207.0</ele><time>2026-04-27T08:57:21.949Z</time></trkpt><trkpt lat="39.88852466812982" lon="8.807552641790913"><ele>207.0</ele><time>2026-04-27T08:57:22.949Z</time></trkpt><trkpt lat="39.88846479629324" lon="8.807515283649177"><ele>205.5</ele><time>2026-04-27T08:57:23.949Z</time></trkpt><trkpt lat="39.88840135153822" lon="8.807488269872126"><ele>204.0</ele><time>2026-04-27T08:57:24.949Z</time></trkpt><trkpt lat="39.8882770420524" lon="8.807435092395442"><ele>202.5</ele><time>2026-04-27T08:57:26.949Z</time></trkpt><trkpt lat="39.88820001266675" lon="8.807404349359118"><ele>201.0</ele><time>2026-04-27T08:57:27.949Z</time></trkpt><trkpt lat="39.88811845685029" lon="8.80737370758409"><ele>199.5</ele><time>2026-04-27T08:57:28.949Z</time></trkpt><trkpt lat="39.88803791957761" lon="8.807358702532927"><ele>198.0</ele><time>2026-04-27T08:57:29.949Z</time></trkpt><trkpt lat="39.887961424505" lon="8.807319200257504"><ele>198.0</ele><time>2026-04-27T08:57:30.949Z</time></trkpt><trkpt lat="39.88789325260319" lon="8.807316171746255"><ele>198.0</ele><time>2026-04-27T08:57:31.949Z</time></trkpt><trkpt lat="39.8878194230267" lon="8.807307688877087"><ele>198.0</ele><time>2026-04-27T08:57:32.949Z</time></trkpt><trkpt lat="39.88773866967103" lon="8.807313006714963"><ele>198.0</ele><time>2026-04-27T08:57:33.949Z</time></trkpt><trkpt lat="39.88765023659556" lon="8.807309166166485"><ele>198.0</ele><time>2026-04-27T08:57:34.949Z</time></trkpt><trkpt lat="39.88757428157764" lon="8.807306356320739"><ele>198.0</ele><time>2026-04-27T08:57:35.949Z</time></trkpt><trkpt lat="39.88750527309299" lon="8.807302502391444"><ele>196.4</ele><time>2026-04-27T08:57:36.949Z</time></trkpt><trkpt lat="39.88745007829527" lon="8.807184684346845"><ele>194.8</ele><time>2026-04-27T08:57:37.949Z</time></trkpt><trkpt lat="39.887370252530616" lon="8.807116151702402"><ele>193.2</ele><time>2026-04-27T08:57:38.949Z</time></trkpt><trkpt lat="39.88726541615869" lon="8.807067213101059"><ele>191.6</ele><time>2026-04-27T08:57:39.949Z</time></trkpt><trkpt lat="39.88716558409121" lon="8.807011096413403"><ele>190.0</ele><time>2026-04-27T08:57:40.949Z</time></trkpt><trkpt lat="39.88704039674593" lon="8.806966937675483"><ele>190.0</ele><time>2026-04-27T08:57:41.949Z</time></trkpt><trkpt lat="39.88690726346968" lon="8.806917191780315"><ele>190.0</ele><time>2026-04-27T08:57:42.949Z</time></trkpt><trkpt lat="39.886768910527266" lon="8.806855254732753"><ele>190.0</ele><time>2026-04-27T08:57:43.949Z</time></trkpt><trkpt lat="39.88661661484096" lon="8.806797113846887"><ele>190.0</ele><time>2026-04-27T08:57:44.949Z</time></trkpt><trkpt lat="39.88646179839609" lon="8.806725576126569"><ele>188.33333333333334</ele><time>2026-04-27T08:57:45.949Z</time></trkpt><trkpt lat="39.88630676005233" lon="8.806651018276764"><ele>186.66666666666666</ele><time>2026-04-27T08:57:46.949Z</time></trkpt><trkpt lat="39.886138184317566" lon="8.806576559231784"><ele>185.0</ele><time>2026-04-27T08:57:47.949Z</time></trkpt><trkpt lat="39.885979014254374" lon="8.806506153961099"><ele>182.33333333333331</ele><time>2026-04-27T08:57:48.949Z</time></trkpt><trkpt lat="39.88583198574263" lon="8.806416224436603"><ele>179.66666666666666</ele><time>2026-04-27T08:57:49.949Z</time></trkpt><trkpt lat="39.88566241558139" lon="8.806365343554232"><ele>177.0</ele><time>2026-04-27T08:57:50.949Z</time></trkpt><trkpt lat="39.88550400295583" lon="8.806294857163763"><ele>177.0</ele><time>2026-04-27T08:57:51.949Z</time></trkpt><trkpt lat="39.88535440519635" lon="8.806226278870897"><ele>177.0</ele><time>2026-04-27T08:57:52.949Z</time></trkpt><trkpt lat="39.88520858848358" lon="8.806155336836431"><ele>177.0</ele><time>2026-04-27T08:57:53.949Z</time></trkpt><trkpt lat="39.88506864958271" lon="8.806061136671735"><ele>175.75</ele><time>2026-04-27T08:57:54.949Z</time></trkpt><trkpt lat="39.88494008579151" lon="8.805979862810739"><ele>174.5</ele><time>2026-04-27T08:57:55.949Z</time></trkpt><trkpt lat="39.8848240921518" lon="8.805884885849638"><ele>173.25</ele><time>2026-04-27T08:57:56.949Z</time></trkpt><trkpt lat="39.88471042133108" lon="8.805771757491296"><ele>172.0</ele><time>2026-04-27T08:57:57.949Z</time></trkpt><trkpt lat="39.884628127075" lon="8.805654563960756"><ele>172.0</ele><time>2026-04-27T08:57:58.949Z</time></trkpt><trkpt lat="39.88458272524732" lon="8.805546575156223"><ele>172.0</ele><time>2026-04-27T08:57:59.949Z</time></trkpt><trkpt lat="39.88453988373434" lon="8.805434780648142"><ele>172.0</ele><time>2026-04-27T08:58:00.949Z</time></trkpt><trkpt lat="39.88450658484435" lon="8.805286630153171"><ele>172.0</ele><time>2026-04-27T08:58:01.949Z</time></trkpt><trkpt lat="39.884483255207506" lon="8.80511721391051"><ele>172.0</ele><time>2026-04-27T08:58:02.949Z</time></trkpt><trkpt lat="39.88447730920207" lon="8.804936450778337"><ele>171.5</ele><time>2026-04-27T08:58:03.949Z</time></trkpt><trkpt lat="39.88448974659743" lon="8.804755414358668"><ele>171.0</ele><time>2026-04-27T08:58:04.949Z</time></trkpt><trkpt lat="39.88451973687157" lon="8.804582131885141"><ele>170.5</ele><time>2026-04-27T08:58:05.949Z</time></trkpt><trkpt lat="39.884565997551825" lon="8.80442384296366"><ele>170.0</ele><time>2026-04-27T08:58:06.949Z</time></trkpt><trkpt lat="39.884625564135376" lon="8.804267886888933"><ele>166.66666666666666</ele><time>2026-04-27T08:58:07.949Z</time></trkpt><trkpt lat="39.88470685981762" lon="8.804114998019404"><ele>163.33333333333334</ele><time>2026-04-27T08:58:08.949Z</time></trkpt><trkpt lat="39.88478916028377" lon="8.803932715066606"><ele>160.0</ele><time>2026-04-27T08:58:09.949Z</time></trkpt><trkpt lat="39.884890207310164" lon="8.8037715668581"><ele>160.0</ele><time>2026-04-27T08:58:10.949Z</time></trkpt><trkpt lat="39.88499168918192" lon="8.803609531797338"><ele>160.0</ele><time>2026-04-27T08:58:11.949Z</time></trkpt><trkpt lat="39.8850887181133" lon="8.803443771640246"><ele>160.0</ele><time>2026-04-27T08:58:12.949Z</time></trkpt><trkpt lat="39.885182144481554" lon="8.80328144362369"><ele>158.0</ele><time>2026-04-27T08:58:13.949Z</time></trkpt><trkpt lat="39.885276793459" lon="8.803132005151642"><ele>156.0</ele><time>2026-04-27T08:58:14.948Z</time></trkpt><trkpt lat="39.88538001406794" lon="8.802984929502857"><ele>154.0</ele><time>2026-04-27T08:58:15.947Z</time></trkpt><trkpt lat="39.88549843970292" lon="8.802831622433555"><ele>154.0</ele><time>2026-04-27T08:58:16.947Z</time></trkpt><trkpt lat="39.88561609495927" lon="8.802692748648598"><ele>154.0</ele><time>2026-04-27T08:58:17.947Z</time></trkpt><trkpt lat="39.88573485278053" lon="8.802574450501112"><ele>154.0</ele><time>2026-04-27T08:58:18.948Z</time></trkpt><trkpt lat="39.885837727504395" lon="8.802435622414118"><ele>152.66666666666669</ele><time>2026-04-27T08:58:19.948Z</time></trkpt><trkpt lat="39.88593920173069" lon="8.802286146722018"><ele>151.33333333333334</ele><time>2026-04-27T08:58:20.947Z</time></trkpt><trkpt lat="39.8860150021617" lon="8.802092066610754"><ele>150.0</ele><time>2026-04-27T08:58:21.948Z</time></trkpt><trkpt lat="39.88608606045403" lon="8.801907888569533"><ele>146.33333333333334</ele><time>2026-04-27T08:58:22.948Z</time></trkpt><trkpt lat="39.886153026714595" lon="8.80173608285121"><ele>142.66666666666669</ele><time>2026-04-27T08:58:23.948Z</time></trkpt><trkpt lat="39.88623650809565" lon="8.80157080918113"><ele>139.0</ele><time>2026-04-27T08:58:24.948Z</time></trkpt><trkpt lat="39.8863451861638" lon="8.801416689176934"><ele>139.0</ele><time>2026-04-27T08:58:25.948Z</time></trkpt><trkpt lat="39.88646116302334" lon="8.801280045672359"><ele>139.0</ele><time>2026-04-27T08:58:26.947Z</time></trkpt><trkpt lat="39.88658842477946" lon="8.80114021202296"><ele>139.0</ele><time>2026-04-27T08:58:27.947Z</time></trkpt><trkpt lat="39.88672024528953" lon="8.800999691496019"><ele>135.0</ele><time>2026-04-27T08:58:28.947Z</time></trkpt><trkpt lat="39.88685738614078" lon="8.800843059283217"><ele>131.0</ele><time>2026-04-27T08:58:29.947Z</time></trkpt><trkpt lat="39.88699720395243" lon="8.800687375327787"><ele>127.0</ele><time>2026-04-27T08:58:30.947Z</time></trkpt><trkpt lat="39.88713283073509" lon="8.800537762159115"><ele>127.0</ele><time>2026-04-27T08:58:31.947Z</time></trkpt><trkpt lat="39.8872662143589" lon="8.800377558296326"><ele>127.0</ele><time>2026-04-27T08:58:32.947Z</time></trkpt><trkpt lat="39.88740605630674" lon="8.800219136412716"><ele>127.0</ele><time>2026-04-27T08:58:33.947Z</time></trkpt><trkpt lat="39.887540084982604" lon="8.800065812629109"><ele>123.33333333333334</ele><time>2026-04-27T08:58:34.947Z</time></trkpt><trkpt lat="39.88767665114056" lon="8.799905271112598"><ele>119.66666666666666</ele><time>2026-04-27T08:58:35.947Z</time></trkpt><trkpt lat="39.88781619908935" lon="8.799744826924458"><ele>116.0</ele><time>2026-04-27T08:58:36.947Z</time></trkpt><trkpt lat="39.887956878736304" lon="8.799582219037339"><ele>116.0</ele><time>2026-04-27T08:58:37.947Z</time></trkpt><trkpt lat="39.888091702746586" lon="8.799421609142923"><ele>116.0</ele><time>2026-04-27T08:58:38.947Z</time></trkpt><trkpt lat="39.88821656927237" lon="8.7992785556757"><ele>116.0</ele><time>2026-04-27T08:58:39.947Z</time></trkpt><trkpt lat="39.88833771537425" lon="8.799135526313519"><ele>114.25</ele><time>2026-04-27T08:58:40.947Z</time></trkpt><trkpt lat="39.888439063030305" lon="8.79900993849416"><ele>112.5</ele><time>2026-04-27T08:58:41.947Z</time></trkpt><trkpt lat="39.88852388609165" lon="8.798883403739772"><ele>110.75</ele><time>2026-04-27T08:58:42.947Z</time></trkpt><trkpt lat="39.88859842447057" lon="8.798735348620587"><ele>109.0</ele><time>2026-04-27T08:58:43.947Z</time></trkpt><trkpt lat="39.88865107058603" lon="8.7985594354879"><ele>108.33333333333334</ele><time>2026-04-27T08:58:44.947Z</time></trkpt><trkpt lat="39.88870764755112" lon="8.798369162246424"><ele>107.66666666666666</ele><time>2026-04-27T08:58:45.947Z</time></trkpt><trkpt lat="39.88875804068892" lon="8.798159526478845"><ele>107.0</ele><time>2026-04-27T08:58:46.947Z</time></trkpt><trkpt lat="39.8888097406395" lon="8.797934457652913"><ele>107.0</ele><time>2026-04-27T08:58:47.947Z</time></trkpt><trkpt lat="39.88886030168217" lon="8.797707672475799"><ele>107.0</ele><time>2026-04-27T08:58:48.947Z</time></trkpt><trkpt lat="39.888919058505195" lon="8.797481116953522"><ele>107.0</ele><time>2026-04-27T08:58:49.947Z</time></trkpt><trkpt lat="39.888976786013835" lon="8.797253474151077"><ele>105.33333333333333</ele><time>2026-04-27T08:58:50.947Z</time></trkpt><trkpt lat="39.88903448808949" lon="8.797026958326786"><ele>103.66666666666666</ele><time>2026-04-27T08:58:51.947Z</time></trkpt><trkpt lat="39.8890994644207" lon="8.79678552922817"><ele>102.0</ele><time>2026-04-27T08:58:52.947Z</time></trkpt><trkpt lat="39.889163745331516" lon="8.796552222299573"><ele>101.33333333333334</ele><time>2026-04-27T08:58:53.947Z</time></trkpt><trkpt lat="39.88922112824241" lon="8.796320143792567"><ele>100.66666666666667</ele><time>2026-04-27T08:58:54.947Z</time></trkpt><trkpt lat="39.88928138917159" lon="8.796088266557605"><ele>100.0</ele><time>2026-04-27T08:58:55.947Z</time></trkpt><trkpt lat="39.88933984862239" lon="8.795853490938734"><ele>98.66666666666667</ele><time>2026-04-27T08:58:56.947Z</time></trkpt><trkpt lat="39.88938576274541" lon="8.795636081176756"><ele>97.33333333333334</ele><time>2026-04-27T08:58:57.947Z</time></trkpt><trkpt lat="39.8894120473661" lon="8.795422330147334"><ele>96.0</ele><time>2026-04-27T08:58:58.947Z</time></trkpt><trkpt lat="39.88942747196222" lon="8.795204703280112"><ele>94.66666666666667</ele><time>2026-04-27T08:58:59.947Z</time></trkpt><trkpt lat="39.88943639832404" lon="8.79497592453127"><ele>93.33333333333334</ele><time>2026-04-27T08:59:00.947Z</time></trkpt><trkpt lat="39.88944322447813" lon="8.79472885611543"><ele>92.0</ele><time>2026-04-27T08:59:01.947Z</time></trkpt><trkpt lat="39.889449224633296" lon="8.79449805714855"><ele>91.25</ele><time>2026-04-27T08:59:02.947Z</time></trkpt><trkpt lat="39.88945541089913" lon="8.79430890047031"><ele>90.5</ele><time>2026-04-27T08:59:03.947Z</time></trkpt><trkpt lat="39.8894525763315" lon="8.794165844625077"><ele>89.75</ele><time>2026-04-27T08:59:04.947Z</time></trkpt><trkpt lat="39.88942866747222" lon="8.794017784229135"><ele>89.0</ele><time>2026-04-27T08:59:05.947Z</time></trkpt><trkpt lat="39.88937951288983" lon="8.793861954954265"><ele>89.0</ele><time>2026-04-27T08:59:06.947Z</time></trkpt><trkpt lat="39.88931324336906" lon="8.793712195383847"><ele>89.0</ele><time>2026-04-27T08:59:07.947Z</time></trkpt><trkpt lat="39.889253802560724" lon="8.793554374328544"><ele>89.0</ele><time>2026-04-27T08:59:08.947Z</time></trkpt><trkpt lat="39.889195641019455" lon="8.793360521192074"><ele>89.0</ele><time>2026-04-27T08:59:09.947Z</time></trkpt><trkpt lat="39.88915871339161" lon="8.793188557217762"><ele>89.0</ele><time>2026-04-27T08:59:10.947Z</time></trkpt><trkpt lat="39.889139756518915" lon="8.793033346854195"><ele>89.0</ele><time>2026-04-27T08:59:11.947Z</time></trkpt><trkpt lat="39.88913658540421" lon="8.792857288653062"><ele>89.0</ele><time>2026-04-27T08:59:12.947Z</time></trkpt><trkpt lat="39.88917297018154" lon="8.792694368677713"><ele>89.0</ele><time>2026-04-27T08:59:13.947Z</time></trkpt><trkpt lat="39.88920269160499" lon="8.792518132746201"><ele>89.0</ele><time>2026-04-27T08:59:14.947Z</time></trkpt><trkpt lat="39.88922337959529" lon="8.792386180815685"><ele>89.0</ele><time>2026-04-27T08:59:15.947Z</time></trkpt><trkpt lat="39.88922446781001" lon="8.792258207052988"><ele>89.0</ele><time>2026-04-27T08:59:16.947Z</time></trkpt><trkpt lat="39.88918960034331" lon="8.792116028652345"><ele>89.0</ele><time>2026-04-27T08:59:17.947Z</time></trkpt><trkpt lat="39.88910644969044" lon="8.791978619671996"><ele>88.6</ele><time>2026-04-27T08:59:18.947Z</time></trkpt><trkpt lat="39.88906937345644" lon="8.791838533944851"><ele>88.2</ele><time>2026-04-27T08:59:19.947Z</time></trkpt><trkpt lat="39.88905578633762" lon="8.791709121764345"><ele>87.8</ele><time>2026-04-27T08:59:20.947Z</time></trkpt><trkpt lat="39.889078085805394" lon="8.791590854530584"><ele>87.39999999999999</ele><time>2026-04-27T08:59:21.947Z</time></trkpt><trkpt lat="39.889116886654996" lon="8.791451062024107"><ele>87.0</ele><time>2026-04-27T08:59:22.947Z</time></trkpt><trkpt lat="39.889180641440866" lon="8.791278341999766"><ele>87.0</ele><time>2026-04-27T08:59:23.947Z</time></trkpt><trkpt lat="39.88924955688401" lon="8.79110250970564"><ele>87.0</ele><time>2026-04-27T08:59:24.947Z</time></trkpt><trkpt lat="39.88931801043653" lon="8.790919750482683"><ele>87.0</ele><time>2026-04-27T08:59:25.947Z</time></trkpt><trkpt lat="39.88938343531532" lon="8.790722971155546"><ele>86.0</ele><time>2026-04-27T08:59:26.947Z</time></trkpt><trkpt lat="39.88945344444079" lon="8.790517583196428"><ele>85.0</ele><time>2026-04-27T08:59:27.947Z</time></trkpt><trkpt lat="39.889523313705276" lon="8.79029903507176"><ele>84.0</ele><time>2026-04-27T08:59:28.947Z</time></trkpt><trkpt lat="39.88959687245434" lon="8.790070711831207"><ele>83.66666666666667</ele><time>2026-04-27T08:59:29.947Z</time></trkpt><trkpt lat="39.889662000124865" lon="8.789849380342169"><ele>83.33333333333334</ele><time>2026-04-27T08:59:30.947Z</time></trkpt><trkpt lat="39.88972255921171" lon="8.78964031736102"><ele>83.0</ele><time>2026-04-27T08:59:31.947Z</time></trkpt><trkpt lat="39.889769732434665" lon="8.789447706148776"><ele>82.5</ele><time>2026-04-27T08:59:32.947Z</time></trkpt><trkpt lat="39.88978612886583" lon="8.789319793076029"><ele>82.0</ele><time>2026-04-27T08:59:33.947Z</time></trkpt><trkpt lat="39.889792839086944" lon="8.789226174948192"><ele>81.5</ele><time>2026-04-27T08:59:34.947Z</time></trkpt><trkpt lat="39.88976594755843" lon="8.789131207376528"><ele>81.0</ele><time>2026-04-27T08:59:35.947Z</time></trkpt><trkpt lat="39.88970490996567" lon="8.78903673601177"><ele>80.5</ele><time>2026-04-27T08:59:36.947Z</time></trkpt><trkpt lat="39.889628820271895" lon="8.788954822472533"><ele>80.0</ele><time>2026-04-27T08:59:37.947Z</time></trkpt><trkpt lat="39.88953212871861" lon="8.788879886872259"><ele>80.0</ele><time>2026-04-27T08:59:38.947Z</time></trkpt><trkpt lat="39.88941266591309" lon="8.788802987825754"><ele>80.0</ele><time>2026-04-27T08:59:39.947Z</time></trkpt><trkpt lat="39.889289413972875" lon="8.788706348089676"><ele>80.0</ele><time>2026-04-27T08:59:40.947Z</time></trkpt><trkpt lat="39.88915179008707" lon="8.788643724406517"><ele>80.0</ele><time>2026-04-27T08:59:41.947Z</time></trkpt><trkpt lat="39.88901066839521" lon="8.78858505869657"><ele>80.0</ele><time>2026-04-27T08:59:42.947Z</time></trkpt><trkpt lat="39.88887672915373" lon="8.788510235629465"><ele>80.0</ele><time>2026-04-27T08:59:43.947Z</time></trkpt><trkpt lat="39.88875594367955" lon="8.788430505148387"><ele>80.0</ele><time>2026-04-27T08:59:44.947Z</time></trkpt><trkpt lat="39.888658547513465" lon="8.788334131213453"><ele>80.0</ele><time>2026-04-27T08:59:45.947Z</time></trkpt><trkpt lat="39.888571164983986" lon="8.788224789897765"><ele>80.0</ele><time>2026-04-27T08:59:46.947Z</time></trkpt><trkpt lat="39.88846531747627" lon="8.788099185362528"><ele>80.0</ele><time>2026-04-27T08:59:47.947Z</time></trkpt><trkpt lat="39.888344836042315" lon="8.78800554695432"><ele>80.0</ele><time>2026-04-27T08:59:48.947Z</time></trkpt><trkpt lat="39.888236709480736" lon="8.787929834122156"><ele>80.0</ele><time>2026-04-27T08:59:49.947Z</time></trkpt><trkpt lat="39.88816915696802" lon="8.787874410772075"><ele>80.5</ele><time>2026-04-27T08:59:50.947Z</time></trkpt><trkpt lat="39.88809069930381" lon="8.787788900234437"><ele>81.0</ele><time>2026-04-27T08:59:52.947Z</time></trkpt><trkpt lat="39.887949063070195" lon="8.787772861557164"><ele>81.5</ele><time>2026-04-27T08:59:55.947Z</time></trkpt><trkpt lat="39.8878921912779" lon="8.787863095193465"><ele>82.0</ele><time>2026-04-27T08:59:58.947Z</time></trkpt><trkpt lat="39.8877626156109" lon="8.787971987201331"><ele>82.0</ele><time>2026-04-27T09:00:00.947Z</time></trkpt><trkpt lat="39.88765289852143" lon="8.788068592658798"><ele>82.0</ele><time>2026-04-27T09:00:01.947Z</time></trkpt><trkpt lat="39.887539917766425" lon="8.788162149037818"><ele>82.0</ele><time>2026-04-27T09:00:02.947Z</time></trkpt><trkpt lat="39.887426018864275" lon="8.788255939710591"><ele>82.0</ele><time>2026-04-27T09:00:03.947Z</time></trkpt><trkpt lat="39.887323209397984" lon="8.788364370812916"><ele>81.19999999999999</ele><time>2026-04-27T09:00:04.947Z</time></trkpt><trkpt lat="39.88721178297414" lon="8.788416437741171"><ele>80.39999999999999</ele><time>2026-04-27T09:00:05.947Z</time></trkpt><trkpt lat="39.887141363664774" lon="8.78844628193927"><ele>79.6</ele><time>2026-04-27T09:00:06.947Z</time></trkpt><trkpt lat="39.88707549921236" lon="8.78847847166881"><ele>78.8</ele><time>2026-04-27T09:00:07.947Z</time></trkpt><trkpt lat="39.88707737514428" lon="8.78835924554162"><ele>78.0</ele><time>2026-04-27T09:00:09.947Z</time></trkpt><trkpt lat="39.886963238592664" lon="8.788263612482869"><ele>78.0</ele><time>2026-04-27T09:00:11.947Z</time></trkpt><trkpt lat="39.88688495305918" lon="8.788213051005137"><ele>78.0</ele><time>2026-04-27T09:00:12.947Z</time></trkpt><trkpt lat="39.886820031095986" lon="8.788176089818817"><ele>78.0</ele><time>2026-04-27T09:00:13.947Z</time></trkpt><trkpt lat="39.8866821110672" lon="8.788183160662845"><ele>78.0</ele><time>2026-04-27T09:00:15.947Z</time></trkpt><trkpt lat="39.88662826148191" lon="8.788294885755434"><ele>78.0</ele><time>2026-04-27T09:00:16.947Z</time></trkpt><trkpt lat="39.88656204612405" lon="8.788362397252111"><ele>78.0</ele><time>2026-04-27T09:00:17.947Z</time></trkpt><trkpt lat="39.88648960560071" lon="8.788408640385493"><ele>78.0</ele><time>2026-04-27T09:00:18.947Z</time></trkpt><trkpt lat="39.88641568235669" lon="8.788474710790092"><ele>78.0</ele><time>2026-04-27T09:00:19.945Z</time></trkpt><trkpt lat="39.88633285031032" lon="8.788512471029884"><ele>78.0</ele><time>2026-04-27T09:00:20.946Z</time></trkpt><trkpt lat="39.886244359900495" lon="8.78854627157307"><ele>78.0</ele><time>2026-04-27T09:00:21.946Z</time></trkpt><trkpt lat="39.886167720260715" lon="8.788585662091853"><ele>78.0</ele><time>2026-04-27T09:00:22.946Z</time></trkpt><trkpt lat="39.886104008244494" lon="8.788632527003655"><ele>78.0</ele><time>2026-04-27T09:00:23.946Z</time></trkpt><trkpt lat="39.88603389271687" lon="8.78869926366188"><ele>78.0</ele><time>2026-04-27T09:00:24.946Z</time></trkpt><trkpt lat="39.88597589981117" lon="8.788775244374607"><ele>78.0</ele><time>2026-04-27T09:00:25.946Z</time></trkpt><trkpt lat="39.8858806990587" lon="8.788852089584198"><ele>78.0</ele><time>2026-04-27T09:00:26.945Z</time></trkpt><trkpt lat="39.88580192903754" lon="8.78892909234935"><ele>78.0</ele><time>2026-04-27T09:00:27.945Z</time></trkpt><trkpt lat="39.88571826064726" lon="8.788982059435051"><ele>77.75</ele><time>2026-04-27T09:00:28.946Z</time></trkpt><trkpt lat="39.88560683466378" lon="8.789037324738075"><ele>77.5</ele><time>2026-04-27T09:00:29.946Z</time></trkpt><trkpt lat="39.885519703217646" lon="8.789096741233873"><ele>77.25</ele><time>2026-04-27T09:00:30.946Z</time></trkpt><trkpt lat="39.885436812280695" lon="8.789176897864735"><ele>77.0</ele><time>2026-04-27T09:00:31.945Z</time></trkpt><trkpt lat="39.88530914894698" lon="8.789344779721926"><ele>77.0</ele><time>2026-04-27T09:00:32.946Z</time></trkpt><trkpt lat="39.88520897594823" lon="8.789480288481558"><ele>77.0</ele><time>2026-04-27T09:00:33.946Z</time></trkpt><trkpt lat="39.88512114421712" lon="8.789606571194666"><ele>77.0</ele><time>2026-04-27T09:00:34.946Z</time></trkpt><trkpt lat="39.885057352978315" lon="8.789731770317479"><ele>77.0</ele><time>2026-04-27T09:00:35.946Z</time></trkpt><trkpt lat="39.884969199774744" lon="8.78983100119121"><ele>76.75</ele><time>2026-04-27T09:00:36.946Z</time></trkpt><trkpt lat="39.88487559268314" lon="8.789924338559462"><ele>76.5</ele><time>2026-04-27T09:00:37.946Z</time></trkpt><trkpt lat="39.88477711449309" lon="8.790017868742694"><ele>76.25</ele><time>2026-04-27T09:00:38.946Z</time></trkpt><trkpt lat="39.88467475498442" lon="8.790149320906767"><ele>76.0</ele><time>2026-04-27T09:00:39.946Z</time></trkpt><trkpt lat="39.884586186034525" lon="8.790249142245246"><ele>76.0</ele><time>2026-04-27T09:00:40.946Z</time></trkpt><trkpt lat="39.88451958675987" lon="8.790325122750865"><ele>76.0</ele><time>2026-04-27T09:00:41.946Z</time></trkpt><trkpt lat="39.8845910577317" lon="8.7902725961712"><ele>76.0</ele><time>2026-04-27T09:00:44.946Z</time></trkpt><trkpt lat="39.88472126391362" lon="8.790130652611918"><ele>76.0</ele><time>2026-04-27T09:00:45.946Z</time></trkpt><trkpt lat="39.88403311913335" lon="8.790817745981803"><ele>76.25</ele><time>2026-04-27T09:00:46.946Z</time></trkpt><trkpt lat="39.883917894400405" lon="8.790878993195117"><ele>76.5</ele><time>2026-04-27T09:00:47.946Z</time></trkpt><trkpt lat="39.88381813118919" lon="8.790966990436145"><ele>76.75</ele><time>2026-04-27T09:00:48.946Z</time></trkpt><trkpt lat="39.88373398466292" lon="8.791067998100706"><ele>77.0</ele><time>2026-04-27T09:00:49.946Z</time></trkpt><trkpt lat="39.88362248801358" lon="8.791170779299343"><ele>77.5</ele><time>2026-04-27T09:00:50.946Z</time></trkpt><trkpt lat="39.88351171192847" lon="8.791244436003307"><ele>78.0</ele><time>2026-04-27T09:00:51.946Z</time></trkpt><trkpt lat="39.88340769555592" lon="8.791320394244462"><ele>78.5</ele><time>2026-04-27T09:00:52.946Z</time></trkpt><trkpt lat="39.88330063702152" lon="8.791386492209417"><ele>79.0</ele><time>2026-04-27T09:00:53.946Z</time></trkpt><trkpt lat="39.88319393975239" lon="8.791467025988549"><ele>79.0</ele><time>2026-04-27T09:00:54.946Z</time></trkpt><trkpt lat="39.88307710445653" lon="8.791523492940838"><ele>79.0</ele><time>2026-04-27T09:00:55.946Z</time></trkpt><trkpt lat="39.882963985316664" lon="8.791578470331054"><ele>79.0</ele><time>2026-04-27T09:00:56.946Z</time></trkpt><trkpt lat="39.88285478469779" lon="8.791634847201678"><ele>79.0</ele><time>2026-04-27T09:00:57.946Z</time></trkpt><trkpt lat="39.882754322773735" lon="8.791684069436903"><ele>79.0</ele><time>2026-04-27T09:00:58.946Z</time></trkpt><trkpt lat="39.88266932495308" lon="8.791697939590902"><ele>79.0</ele><time>2026-04-27T09:00:59.946Z</time></trkpt><trkpt lat="39.882572354948174" lon="8.791716786264423"><ele>79.0</ele><time>2026-04-27T09:01:01.946Z</time></trkpt><trkpt lat="39.8826015305705" lon="8.791598634239243"><ele>79.0</ele><time>2026-04-27T09:01:06.946Z</time></trkpt><trkpt lat="39.88261682668998" lon="8.791493223420119"><ele>79.0</ele><time>2026-04-27T09:01:07.946Z</time></trkpt><trkpt lat="39.88262404397334" lon="8.791366342897023"><ele>79.0</ele><time>2026-04-27T09:01:08.946Z</time></trkpt><trkpt lat="39.88261221085852" lon="8.79121326341939"><ele>79.0</ele><time>2026-04-27T09:01:09.946Z</time></trkpt><trkpt lat="39.88261139843048" lon="8.79110388287901"><ele>79.0</ele><time>2026-04-27T09:01:10.946Z</time></trkpt><trkpt lat="39.88260967008472" lon="8.790983088839177"><ele>79.0</ele><time>2026-04-27T09:01:11.946Z</time></trkpt><trkpt lat="39.88260486299814" lon="8.790837857202321"><ele>79.0</ele><time>2026-04-27T09:01:12.946Z</time></trkpt><trkpt lat="39.882597813845756" lon="8.79067742499362"><ele>79.0</ele><time>2026-04-27T09:01:13.946Z</time></trkpt><trkpt lat="39.88259210528613" lon="8.790529296561976"><ele>79.0</ele><time>2026-04-27T09:01:14.946Z</time></trkpt><trkpt lat="39.88259738132956" lon="8.790382433359207"><ele>79.0</ele><time>2026-04-27T09:01:15.946Z</time></trkpt><trkpt lat="39.88259460555208" lon="8.790256442375675"><ele>79.0</ele><time>2026-04-27T09:01:16.946Z</time></trkpt><trkpt lat="39.88259448480791" lon="8.790145813518048"><ele>79.0</ele><time>2026-04-27T09:01:18.946Z</time></trkpt><trkpt lat="39.882591348517536" lon="8.789979052163154"><ele>78.8</ele><time>2026-04-27T09:01:20.946Z</time></trkpt><trkpt lat="39.88258638109762" lon="8.789881049843892"><ele>78.60000000000001</ele><time>2026-04-27T09:01:21.946Z</time></trkpt><trkpt lat="39.88256573024664" lon="8.789766639585777"><ele>78.4</ele><time>2026-04-27T09:01:23.946Z</time></trkpt><trkpt lat="39.88238735921056" lon="8.789845235121767"><ele>78.2</ele><time>2026-04-27T09:01:28.946Z</time></trkpt><trkpt lat="39.882307228859176" lon="8.78989131617269"><ele>78.0</ele><time>2026-04-27T09:01:29.946Z</time></trkpt><trkpt lat="39.88222711360067" lon="8.78993788347281"><ele>78.0</ele><time>2026-04-27T09:01:30.946Z</time></trkpt><trkpt lat="39.8821440832212" lon="8.789980604925582"><ele>78.0</ele><time>2026-04-27T09:01:31.946Z</time></trkpt><trkpt lat="39.882048931265594" lon="8.790032167322206"><ele>78.0</ele><time>2026-04-27T09:01:32.946Z</time></trkpt><trkpt lat="39.88196077889595" lon="8.790081194217475"><ele>78.0</ele><time>2026-04-27T09:01:33.946Z</time></trkpt><trkpt lat="39.881864493838144" lon="8.790145198795114"><ele>78.0</ele><time>2026-04-27T09:01:34.946Z</time></trkpt><trkpt lat="39.88177444049553" lon="8.790217742582351"><ele>78.25</ele><time>2026-04-27T09:01:35.946Z</time></trkpt><trkpt lat="39.881676050920866" lon="8.790291079493095"><ele>78.5</ele><time>2026-04-27T09:01:36.946Z</time></trkpt><trkpt lat="39.881568324010836" lon="8.790371505295342"><ele>78.75</ele><time>2026-04-27T09:01:37.946Z</time></trkpt><trkpt lat="39.88145801505651" lon="8.790438594560424"><ele>79.0</ele><time>2026-04-27T09:01:38.946Z</time></trkpt><trkpt lat="39.88133916207871" lon="8.790514047822926"><ele>79.0</ele><time>2026-04-27T09:01:39.946Z</time></trkpt><trkpt lat="39.88123548493028" lon="8.790575895394115"><ele>79.0</ele><time>2026-04-27T09:01:40.946Z</time></trkpt><trkpt lat="39.881157701631096" lon="8.790625290048274"><ele>79.0</ele><time>2026-04-27T09:01:41.946Z</time></trkpt><trkpt lat="39.88109425203453" lon="8.790659662873624"><ele>79.0</ele><time>2026-04-27T09:01:42.946Z</time></trkpt><trkpt lat="39.88102850850668" lon="8.790685295756482"><ele>79.0</ele><time>2026-04-27T09:01:43.946Z</time></trkpt><trkpt lat="39.8809481051493" lon="8.790691206717684"><ele>79.0</ele><time>2026-04-27T09:01:44.946Z</time></trkpt><trkpt lat="39.88084492182362" lon="8.79070871621335"><ele>79.6</ele><time>2026-04-27T09:01:45.946Z</time></trkpt><trkpt lat="39.880748251796646" lon="8.790744710705834"><ele>80.2</ele><time>2026-04-27T09:01:46.946Z</time></trkpt><trkpt lat="39.88065159491623" lon="8.790804074376426"><ele>80.8</ele><time>2026-04-27T09:01:47.946Z</time></trkpt><trkpt lat="39.8805546051298" lon="8.790868795307784"><ele>81.39999999999999</ele><time>2026-04-27T09:01:48.946Z</time></trkpt><trkpt lat="39.88045232044671" lon="8.790907846750942"><ele>82.0</ele><time>2026-04-27T09:01:49.946Z</time></trkpt><trkpt lat="39.880353999777995" lon="8.790931753976535"><ele>82.0</ele><time>2026-04-27T09:01:50.946Z</time></trkpt><trkpt lat="39.88026269752457" lon="8.790956235465906"><ele>82.0</ele><time>2026-04-27T09:01:51.946Z</time></trkpt><trkpt lat="39.8801768332413" lon="8.791000945792565"><ele>82.0</ele><time>2026-04-27T09:01:52.946Z</time></trkpt><trkpt lat="39.880089732283196" lon="8.791067944063387"><ele>82.0</ele><time>2026-04-27T09:01:53.946Z</time></trkpt><trkpt lat="39.880005059928216" lon="8.791135109594475"><ele>82.0</ele><time>2026-04-27T09:01:54.946Z</time></trkpt><trkpt lat="39.879910928964655" lon="8.791199693868569"><ele>82.0</ele><time>2026-04-27T09:01:55.946Z</time></trkpt><trkpt lat="39.879819185630275" lon="8.791269815295607"><ele>82.0</ele><time>2026-04-27T09:01:56.946Z</time></trkpt><trkpt lat="39.87972734255421" lon="8.791343691339696"><ele>82.0</ele><time>2026-04-27T09:01:57.946Z</time></trkpt><trkpt lat="39.87962707240186" lon="8.79140681209555"><ele>82.0</ele><time>2026-04-27T09:01:58.946Z</time></trkpt><trkpt lat="39.87952282220159" lon="8.791477851256053"><ele>82.0</ele><time>2026-04-27T09:01:59.946Z</time></trkpt><trkpt lat="39.87941982139448" lon="8.791555074876365"><ele>82.0</ele><time>2026-04-27T09:02:00.946Z</time></trkpt><trkpt lat="39.8793219063994" lon="8.791643633623863"><ele>82.0</ele><time>2026-04-27T09:02:01.946Z</time></trkpt><trkpt lat="39.8792272821745" lon="8.791750762720154"><ele>82.0</ele><time>2026-04-27T09:02:02.946Z</time></trkpt><trkpt lat="39.879141185176984" lon="8.791865513474814"><ele>82.0</ele><time>2026-04-27T09:02:03.946Z</time></trkpt><trkpt lat="39.87906299704823" lon="8.791974957408405"><ele>82.25</ele><time>2026-04-27T09:02:04.946Z</time></trkpt><trkpt lat="39.878977389843385" lon="8.79208357803944"><ele>82.5</ele><time>2026-04-27T09:02:05.946Z</time></trkpt><trkpt lat="39.87889161085048" lon="8.792183695485125"><ele>82.75</ele><time>2026-04-27T09:02:06.946Z</time></trkpt><trkpt lat="39.87879752064682" lon="8.792295323128712"><ele>83.0</ele><time>2026-04-27T09:02:07.946Z</time></trkpt><trkpt lat="39.87870277375194" lon="8.792406671886953"><ele>83.0</ele><time>2026-04-27T09:02:08.946Z</time></trkpt><trkpt lat="39.878604442722406" lon="8.792522056791622"><ele>83.0</ele><time>2026-04-27T09:02:09.946Z</time></trkpt><trkpt lat="39.87851045661114" lon="8.792636905290939"><ele>83.0</ele><time>2026-04-27T09:02:10.946Z</time></trkpt><trkpt lat="39.87841138571458" lon="8.79275133425859"><ele>83.0</ele><time>2026-04-27T09:02:11.946Z</time></trkpt><trkpt lat="39.878317277563696" lon="8.792847850049748"><ele>83.0</ele><time>2026-04-27T09:02:12.946Z</time></trkpt><trkpt lat="39.8782226651502" lon="8.792934977049223"><ele>83.0</ele><time>2026-04-27T09:02:13.946Z</time></trkpt><trkpt lat="39.878136477605956" lon="8.792992766261635"><ele>83.0</ele><time>2026-04-27T09:02:14.946Z</time></trkpt><trkpt lat="39.87803978488759" lon="8.79303320193769"><ele>83.0</ele><time>2026-04-27T09:02:15.946Z</time></trkpt><trkpt lat="39.87793477328494" lon="8.793068525249144"><ele>83.0</ele><time>2026-04-27T09:02:16.946Z</time></trkpt><trkpt lat="39.87784173299005" lon="8.793097618685128"><ele>83.0</ele><time>2026-04-27T09:02:17.946Z</time></trkpt><trkpt lat="39.877737004142716" lon="8.793134264727236"><ele>83.0</ele><time>2026-04-27T09:02:18.946Z</time></trkpt><trkpt lat="39.87763019550103" lon="8.79318172714688"><ele>83.0</ele><time>2026-04-27T09:02:19.946Z</time></trkpt><trkpt lat="39.87753448322998" lon="8.793221014642041"><ele>83.0</ele><time>2026-04-27T09:02:20.946Z</time></trkpt><trkpt lat="39.87745731119047" lon="8.79326636725757"><ele>83.0</ele><time>2026-04-27T09:02:21.946Z</time></trkpt><trkpt lat="39.87739940670435" lon="8.793309794920384"><ele>83.2</ele><time>2026-04-27T09:02:22.946Z</time></trkpt><trkpt lat="39.87731107466739" lon="8.793405173657934"><ele>83.4</ele><time>2026-04-27T09:02:24.946Z</time></trkpt><trkpt lat="39.877233799389586" lon="8.793505842547628"><ele>83.60000000000001</ele><time>2026-04-27T09:02:26.944Z</time></trkpt><trkpt lat="39.8771542208516" lon="8.793612119671732"><ele>83.80000000000001</ele><time>2026-04-27T09:02:28.944Z</time></trkpt><trkpt lat="39.87710418174336" lon="8.793681202609303"><ele>84.0</ele><time>2026-04-27T09:02:29.943Z</time></trkpt><trkpt lat="39.8770411531075" lon="8.79376477663678"><ele>84.0</ele><time>2026-04-27T09:02:30.943Z</time></trkpt><trkpt lat="39.87696638173806" lon="8.793834335574516"><ele>84.0</ele><time>2026-04-27T09:02:31.944Z</time></trkpt><trkpt lat="39.87688929723694" lon="8.793900329925181"><ele>84.0</ele><time>2026-04-27T09:02:32.944Z</time></trkpt><trkpt lat="39.87680291090003" lon="8.793966392030027"><ele>84.0</ele><time>2026-04-27T09:02:33.944Z</time></trkpt><trkpt lat="39.87671730538859" lon="8.794041684296053"><ele>84.0</ele><time>2026-04-27T09:02:34.944Z</time></trkpt><trkpt lat="39.876632588417486" lon="8.794122693711005"><ele>84.4</ele><time>2026-04-27T09:02:35.944Z</time></trkpt><trkpt lat="39.87654912339937" lon="8.79422118804179"><ele>84.80000000000001</ele><time>2026-04-27T09:02:36.944Z</time></trkpt><trkpt lat="39.87647787547036" lon="8.794327450124758"><ele>85.19999999999999</ele><time>2026-04-27T09:02:37.943Z</time></trkpt><trkpt lat="39.87641712105278" lon="8.794438125977088"><ele>85.6</ele><time>2026-04-27T09:02:38.944Z</time></trkpt><trkpt lat="39.876350914747526" lon="8.794538254858525"><ele>86.0</ele><time>2026-04-27T09:02:39.944Z</time></trkpt><trkpt lat="39.87627340061181" lon="8.79463606827179"><ele>86.0</ele><time>2026-04-27T09:02:40.944Z</time></trkpt><trkpt lat="39.87620312744966" lon="8.794731278013558"><ele>86.0</ele><time>2026-04-27T09:02:41.944Z</time></trkpt><trkpt lat="39.876130379394844" lon="8.794832499932653"><ele>86.0</ele><time>2026-04-27T09:02:42.944Z</time></trkpt><trkpt lat="39.87606218266628" lon="8.794917556274042"><ele>86.0</ele><time>2026-04-27T09:02:43.944Z</time></trkpt><trkpt lat="39.8759872636154" lon="8.794973426577847"><ele>86.0</ele><time>2026-04-27T09:02:44.944Z</time></trkpt><trkpt lat="39.875916873546124" lon="8.795023025920155"><ele>86.75</ele><time>2026-04-27T09:02:45.944Z</time></trkpt><trkpt lat="39.87583862808801" lon="8.795064999284016"><ele>87.5</ele><time>2026-04-27T09:02:46.944Z</time></trkpt><trkpt lat="39.875764265008826" lon="8.795115587736404"><ele>88.25</ele><time>2026-04-27T09:02:47.944Z</time></trkpt><trkpt lat="39.87569160602972" lon="8.795172505190207"><ele>89.0</ele><time>2026-04-27T09:02:48.944Z</time></trkpt><trkpt lat="39.87549108944273" lon="8.794996245082293"><ele>89.4</ele><time>2026-04-27T09:02:49.944Z</time></trkpt><trkpt lat="39.875441423656135" lon="8.795047991110046"><ele>89.80000000000001</ele><time>2026-04-27T09:02:51.944Z</time></trkpt><trkpt lat="39.875554826468615" lon="8.795154029197507"><ele>90.19999999999999</ele><time>2026-04-27T09:02:55.944Z</time></trkpt><trkpt lat="39.87560694033219" lon="8.795042588051697"><ele>90.6</ele><time>2026-04-27T09:02:57.944Z</time></trkpt><trkpt lat="39.87566238228577" lon="8.794955797295277"><ele>91.0</ele><time>2026-04-27T09:02:59.944Z</time></trkpt><trkpt lat="39.87564786615582" lon="8.794875533929996"><ele>91.0</ele><time>2026-04-27T09:03:02.944Z</time></trkpt><trkpt lat="39.87554825918568" lon="8.794892699021469"><ele>91.0</ele><time>2026-04-27T09:03:05.944Z</time></trkpt><trkpt lat="39.87548164695989" lon="8.794951036289088"><ele>91.0</ele><time>2026-04-27T09:03:06.944Z</time></trkpt><trkpt lat="39.87539855768168" lon="8.795050587540864"><ele>91.0</ele><time>2026-04-27T09:03:07.944Z</time></trkpt><trkpt lat="39.875319991399714" lon="8.795124586276811"><ele>91.0</ele><time>2026-04-27T09:03:08.944Z</time></trkpt><trkpt lat="39.875229636961365" lon="8.795210161096252"><ele>91.25</ele><time>2026-04-27T09:03:09.944Z</time></trkpt><trkpt lat="39.87512887661777" lon="8.79528460962249"><ele>91.5</ele><time>2026-04-27T09:03:10.944Z</time></trkpt><trkpt lat="39.87500750994242" lon="8.795374903146795"><ele>91.75</ele><time>2026-04-27T09:03:11.944Z</time></trkpt><trkpt lat="39.87488744349196" lon="8.795461021442563"><ele>92.0</ele><time>2026-04-27T09:03:12.944Z</time></trkpt><trkpt lat="39.87480358229086" lon="8.795512211798727"><ele>92.0</ele><time>2026-04-27T09:03:13.944Z</time></trkpt><trkpt lat="39.87472011099288" lon="8.795575382598269"><ele>92.0</ele><time>2026-04-27T09:03:15.944Z</time></trkpt><trkpt lat="39.87464723563684" lon="8.795592818805709"><ele>92.0</ele><time>2026-04-27T09:03:17.944Z</time></trkpt><trkpt lat="39.874585869956015" lon="8.795646144276448"><ele>92.0</ele><time>2026-04-27T09:03:20.944Z</time></trkpt><trkpt lat="39.87465027170805" lon="8.795612420346641"><ele>92.0</ele><time>2026-04-27T09:03:23.944Z</time></trkpt><trkpt lat="39.874762371428275" lon="8.79560861554532"><ele>92.0</ele><time>2026-04-27T09:03:24.944Z</time></trkpt><trkpt lat="39.87482179093374" lon="8.79557095629666"><ele>92.0</ele><time>2026-04-27T09:03:25.944Z</time></trkpt><trkpt lat="39.87487200215437" lon="8.795515984493933"><ele>92.0</ele><time>2026-04-27T09:03:26.944Z</time></trkpt><trkpt lat="39.87489986086859" lon="8.795422731687301"><ele>92.0</ele><time>2026-04-27T09:03:28.944Z</time></trkpt><trkpt lat="39.87481182572074" lon="8.79534572657492"><ele>92.0</ele><time>2026-04-27T09:03:31.944Z</time></trkpt><trkpt lat="39.87473709484272" lon="8.79534376436396"><ele>92.0</ele><time>2026-04-27T09:03:32.944Z</time></trkpt><trkpt lat="39.87464391546285" lon="8.795332610318427"><ele>92.0</ele><time>2026-04-27T09:03:33.944Z</time></trkpt><trkpt lat="39.87454401633684" lon="8.795323445432413"><ele>92.0</ele><time>2026-04-27T09:03:34.944Z</time></trkpt><trkpt lat="39.874455398611225" lon="8.795315844877532"><ele>92.0</ele><time>2026-04-27T09:03:35.944Z</time></trkpt><trkpt lat="39.874375493925626" lon="8.7953121012596"><ele>92.0</ele><time>2026-04-27T09:03:36.944Z</time></trkpt><trkpt lat="39.87430112979734" lon="8.795291173624863"><ele>92.0</ele><time>2026-04-27T09:03:37.944Z</time></trkpt><trkpt lat="39.87422005417013" lon="8.795242920222893"><ele>92.0</ele><time>2026-04-27T09:03:38.944Z</time></trkpt><trkpt lat="39.87413477170122" lon="8.795179558321266"><ele>92.0</ele><time>2026-04-27T09:03:39.944Z</time></trkpt><trkpt lat="39.87402753283513" lon="8.79508066558469"><ele>94.25</ele><time>2026-04-27T09:03:40.944Z</time></trkpt><trkpt lat="39.87391349805792" lon="8.79499361754141"><ele>96.5</ele><time>2026-04-27T09:03:41.944Z</time></trkpt><trkpt lat="39.87379167231877" lon="8.794920394129246"><ele>98.75</ele><time>2026-04-27T09:03:42.943Z</time></trkpt><trkpt lat="39.87365910515184" lon="8.794862241793323"><ele>101.0</ele><time>2026-04-27T09:03:43.943Z</time></trkpt><trkpt lat="39.8735384184226" lon="8.794824150711818"><ele>100.75</ele><time>2026-04-27T09:03:44.943Z</time></trkpt><trkpt lat="39.873420694843645" lon="8.794781065761029"><ele>100.5</ele><time>2026-04-27T09:03:45.943Z</time></trkpt><trkpt lat="39.873289696298535" lon="8.79473423672781"><ele>100.25</ele><time>2026-04-27T09:03:46.943Z</time></trkpt><trkpt lat="39.873131276288575" lon="8.794700924106593"><ele>100.0</ele><time>2026-04-27T09:03:47.943Z</time></trkpt><trkpt lat="39.87302672770587" lon="8.794622721122117"><ele>100.0</ele><time>2026-04-27T09:03:48.943Z</time></trkpt><trkpt lat="39.872921975601614" lon="8.794528808198953"><ele>100.0</ele><time>2026-04-27T09:03:49.943Z</time></trkpt><trkpt lat="39.87281683153484" lon="8.794435908792407"><ele>100.0</ele><time>2026-04-27T09:03:50.943Z</time></trkpt><trkpt lat="39.872714406183746" lon="8.794352538066432"><ele>100.0</ele><time>2026-04-27T09:03:51.943Z</time></trkpt><trkpt lat="39.87262170675529" lon="8.794299731073146"><ele>99.8</ele><time>2026-04-27T09:03:52.943Z</time></trkpt><trkpt lat="39.87252924794794" lon="8.794307119575226"><ele>99.6</ele><time>2026-04-27T09:03:53.943Z</time></trkpt><trkpt lat="39.87245081011058" lon="8.794321311507552"><ele>99.4</ele><time>2026-04-27T09:03:54.943Z</time></trkpt><trkpt lat="39.87236881764452" lon="8.794364325559936"><ele>99.2</ele><time>2026-04-27T09:03:55.943Z</time></trkpt><trkpt lat="39.87228095857536" lon="8.794433306013723"><ele>99.0</ele><time>2026-04-27T09:03:56.943Z</time></trkpt><trkpt lat="39.87219710968223" lon="8.794522595063702"><ele>99.0</ele><time>2026-04-27T09:03:57.943Z</time></trkpt><trkpt lat="39.87210277821813" lon="8.794595615189145"><ele>99.0</ele><time>2026-04-27T09:03:58.943Z</time></trkpt><trkpt lat="39.87198798810049" lon="8.794604369452683"><ele>99.0</ele><time>2026-04-27T09:03:59.943Z</time></trkpt><trkpt lat="39.87187165364963" lon="8.794626097250028"><ele>99.0</ele><time>2026-04-27T09:04:00.943Z</time></trkpt><trkpt lat="39.87175401434605" lon="8.794648303808064"><ele>99.4</ele><time>2026-04-27T09:04:01.943Z</time></trkpt><trkpt lat="39.87162294611177" lon="8.794669101186662"><ele>99.80000000000001</ele><time>2026-04-27T09:04:02.943Z</time></trkpt><trkpt lat="39.87150101396704" lon="8.794683775740735"><ele>100.19999999999999</ele><time>2026-04-27T09:04:03.943Z</time></trkpt><trkpt lat="39.87140464005591" lon="8.794668313178978"><ele>100.6</ele><time>2026-04-27T09:04:04.943Z</time></trkpt><trkpt lat="39.871330646893234" lon="8.794636232238425"><ele>101.0</ele><time>2026-04-27T09:04:05.943Z</time></trkpt><trkpt lat="39.87128012421933" lon="8.794561717323196"><ele>100.99999999999999</ele><time>2026-04-27T09:04:06.943Z</time></trkpt><trkpt lat="39.871241671468376" lon="8.794475166148652"><ele>101.0</ele><time>2026-04-27T09:04:07.943Z</time></trkpt><trkpt lat="39.87122680378999" lon="8.794384949314743"><ele>101.0</ele><time>2026-04-27T09:04:08.943Z</time></trkpt><trkpt lat="39.87122542026842" lon="8.794280718946139"><ele>101.0</ele><time>2026-04-27T09:04:09.943Z</time></trkpt><trkpt lat="39.87125681659883" lon="8.79415401760692"><ele>100.99999999999999</ele><time>2026-04-27T09:04:10.943Z</time></trkpt><trkpt lat="39.87129542620857" lon="8.79404001496653"><ele>101.0</ele><time>2026-04-27T09:04:11.943Z</time></trkpt><trkpt lat="39.871342463758126" lon="8.79390432540703"><ele>102.8</ele><time>2026-04-27T09:04:12.943Z</time></trkpt><trkpt lat="39.87139289664215" lon="8.793774864389299"><ele>104.6</ele><time>2026-04-27T09:04:13.943Z</time></trkpt><trkpt lat="39.87138890291084" lon="8.793625753703278"><ele>106.4</ele><time>2026-04-27T09:04:14.943Z</time></trkpt><trkpt lat="39.87129202384763" lon="8.793526745358388"><ele>108.2</ele><time>2026-04-27T09:04:16.943Z</time></trkpt><trkpt lat="39.871209607289536" lon="8.793515678821187"><ele>110.0</ele><time>2026-04-27T09:04:17.943Z</time></trkpt><trkpt lat="39.87111343823979" lon="8.793519819320489"><ele>110.0</ele><time>2026-04-27T09:04:18.943Z</time></trkpt><trkpt lat="39.871005533729615" lon="8.793532047982515"><ele>110.0</ele><time>2026-04-27T09:04:19.943Z</time></trkpt><trkpt lat="39.870890598231135" lon="8.793552657793903"><ele>110.0</ele><time>2026-04-27T09:04:20.943Z</time></trkpt><trkpt lat="39.87077609990088" lon="8.79353790744702"><ele>110.0</ele><time>2026-04-27T09:04:21.943Z</time></trkpt><trkpt lat="39.87065497338032" lon="8.793500973054957"><ele>111.4</ele><time>2026-04-27T09:04:22.943Z</time></trkpt><trkpt lat="39.870551392478475" lon="8.793448598550373"><ele>112.8</ele><time>2026-04-27T09:04:23.943Z</time></trkpt><trkpt lat="39.870466731156114" lon="8.793378508225329"><ele>114.19999999999999</ele><time>2026-04-27T09:04:24.943Z</time></trkpt><trkpt lat="39.87039449296641" lon="8.79327949344158"><ele>115.6</ele><time>2026-04-27T09:04:25.943Z</time></trkpt><trkpt lat="39.87034378517057" lon="8.793154486370796"><ele>117.0</ele><time>2026-04-27T09:04:26.943Z</time></trkpt><trkpt lat="39.870289464229" lon="8.793013183585686"><ele>117.0</ele><time>2026-04-27T09:04:27.943Z</time></trkpt><trkpt lat="39.87022007627526" lon="8.792916438130716"><ele>116.99999999999999</ele><time>2026-04-27T09:04:28.943Z</time></trkpt><trkpt lat="39.87014542264825" lon="8.792876526540022"><ele>116.99999999999999</ele><time>2026-04-27T09:04:29.943Z</time></trkpt><trkpt lat="39.87005265047265" lon="8.792825874652985"><ele>117.0</ele><time>2026-04-27T09:04:30.943Z</time></trkpt><trkpt lat="39.86994492127615" lon="8.792763016167397"><ele>117.0</ele><time>2026-04-27T09:04:31.942Z</time></trkpt><trkpt lat="39.86982959761185" lon="8.792708426523731"><ele>118.5</ele><time>2026-04-27T09:04:32.942Z</time></trkpt><trkpt lat="39.86970595825016" lon="8.792660740537677"><ele>120.0</ele><time>2026-04-27T09:04:33.942Z</time></trkpt><trkpt lat="39.86958762785696" lon="8.792630527091866"><ele>121.5</ele><time>2026-04-27T09:04:34.942Z</time></trkpt><trkpt lat="39.86946763635738" lon="8.792611235243395"><ele>123.0</ele><time>2026-04-27T09:04:35.942Z</time></trkpt><trkpt lat="39.86934614049451" lon="8.792598687620735"><ele>122.5</ele><time>2026-04-27T09:04:36.942Z</time></trkpt><trkpt lat="39.86922055484904" lon="8.792585921359304"><ele>122.0</ele><time>2026-04-27T09:04:37.942Z</time></trkpt><trkpt lat="39.86908324171519" lon="8.79256013341685"><ele>121.5</ele><time>2026-04-27T09:04:38.943Z</time></trkpt><trkpt lat="39.8689486228966" lon="8.792537379826435"><ele>121.0</ele><time>2026-04-27T09:04:39.943Z</time></trkpt><trkpt lat="39.868825125789506" lon="8.792508874004984"><ele>121.0</ele><time>2026-04-27T09:04:40.942Z</time></trkpt><trkpt lat="39.86871140451617" lon="8.792464405622876"><ele>121.0</ele><time>2026-04-27T09:04:41.942Z</time></trkpt><trkpt lat="39.86861226989048" lon="8.792409077170316"><ele>121.0</ele><time>2026-04-27T09:04:42.942Z</time></trkpt><trkpt lat="39.86852876965557" lon="8.792315627786707"><ele>121.0</ele><time>2026-04-27T09:04:43.942Z</time></trkpt><trkpt lat="39.86844945131759" lon="8.79218631604056"><ele>122.25</ele><time>2026-04-27T09:04:44.943Z</time></trkpt><trkpt lat="39.86837018679784" lon="8.79202278426469"><ele>123.5</ele><time>2026-04-27T09:04:45.943Z</time></trkpt><trkpt lat="39.86829557179593" lon="8.791925953882526"><ele>124.75</ele><time>2026-04-27T09:04:46.943Z</time></trkpt><trkpt lat="39.868206951211384" lon="8.791867406008087"><ele>126.0</ele><time>2026-04-27T09:04:47.942Z</time></trkpt><trkpt lat="39.86811570012366" lon="8.791806895822036"><ele>128.25</ele><time>2026-04-27T09:04:48.942Z</time></trkpt><trkpt lat="39.86801812366643" lon="8.791731233109378"><ele>130.5</ele><time>2026-04-27T09:04:49.942Z</time></trkpt><trkpt lat="39.867912347943616" lon="8.791686072006863"><ele>132.75</ele><time>2026-04-27T09:04:50.942Z</time></trkpt><trkpt lat="39.86779779048339" lon="8.79168594874146"><ele>135.0</ele><time>2026-04-27T09:04:51.942Z</time></trkpt><trkpt lat="39.86767944793427" lon="8.791695934568132"><ele>135.5</ele><time>2026-04-27T09:04:52.942Z</time></trkpt><trkpt lat="39.867558907746066" lon="8.791722739537951"><ele>136.0</ele><time>2026-04-27T09:04:53.942Z</time></trkpt><trkpt lat="39.86744175628727" lon="8.791751529217485"><ele>136.5</ele><time>2026-04-27T09:04:54.942Z</time></trkpt><trkpt lat="39.86733235599128" lon="8.791768886173314"><ele>137.0</ele><time>2026-04-27T09:04:55.942Z</time></trkpt><trkpt lat="39.867226578716384" lon="8.79173830311782"><ele>137.0</ele><time>2026-04-27T09:04:56.942Z</time></trkpt><trkpt lat="39.8671440049855" lon="8.791707464306922"><ele>137.0</ele><time>2026-04-27T09:04:57.942Z</time></trkpt><trkpt lat="39.867058781534574" lon="8.79165785861069"><ele>137.0</ele><time>2026-04-27T09:04:58.942Z</time></trkpt><trkpt lat="39.86697673918057" lon="8.791581004419953"><ele>137.0</ele><time>2026-04-27T09:04:59.942Z</time></trkpt><trkpt lat="39.866908805356545" lon="8.791465067452627"><ele>137.0</ele><time>2026-04-27T09:05:00.942Z</time></trkpt><trkpt lat="39.86681733187482" lon="8.791365685386122"><ele>137.25</ele><time>2026-04-27T09:05:01.942Z</time></trkpt><trkpt lat="39.86673671285034" lon="8.791253460985763"><ele>137.5</ele><time>2026-04-27T09:05:02.942Z</time></trkpt><trkpt lat="39.86663648932289" lon="8.791151737387287"><ele>137.75</ele><time>2026-04-27T09:05:03.942Z</time></trkpt><trkpt lat="39.866531886382646" lon="8.79106007123803"><ele>138.0</ele><time>2026-04-27T09:05:04.942Z</time></trkpt><trkpt lat="39.866430201742496" lon="8.790967325390916"><ele>143.0</ele><time>2026-04-27T09:05:05.942Z</time></trkpt><trkpt lat="39.866326187533254" lon="8.790891958791494"><ele>148.0</ele><time>2026-04-27T09:05:06.942Z</time></trkpt><trkpt lat="39.86621030719665" lon="8.790833447049623"><ele>153.0</ele><time>2026-04-27T09:05:07.942Z</time></trkpt><trkpt lat="39.866105209499565" lon="8.790788518098953"><ele>158.0</ele><time>2026-04-27T09:05:08.942Z</time></trkpt><trkpt lat="39.866016302341265" lon="8.790725476623804"><ele>157.0</ele><time>2026-04-27T09:05:09.942Z</time></trkpt><trkpt lat="39.8659428579473" lon="8.790627079457257"><ele>156.0</ele><time>2026-04-27T09:05:10.942Z</time></trkpt><trkpt lat="39.86588094716005" lon="8.790507681630391"><ele>155.0</ele><time>2026-04-27T09:05:11.942Z</time></trkpt><trkpt lat="39.86582886803601" lon="8.790379325841926"><ele>154.0</ele><time>2026-04-27T09:05:12.942Z</time></trkpt><trkpt lat="39.86578096641411" lon="8.790264460111638"><ele>153.0</ele><time>2026-04-27T09:05:13.942Z</time></trkpt><trkpt lat="39.86571385009855" lon="8.790149586600828"><ele>157.75</ele><time>2026-04-27T09:05:14.942Z</time></trkpt><trkpt lat="39.865619356884956" lon="8.790053711344196"><ele>162.5</ele><time>2026-04-27T09:05:15.942Z</time></trkpt><trkpt lat="39.86549709873014" lon="8.789948397336564"><ele>167.25</ele><time>2026-04-27T09:05:16.942Z</time></trkpt><trkpt lat="39.86537792203781" lon="8.789842223168414"><ele>172.0</ele><time>2026-04-27T09:05:17.942Z</time></trkpt><trkpt lat="39.86525009006223" lon="8.789731863597085"><ele>172.0</ele><time>2026-04-27T09:05:18.942Z</time></trkpt><trkpt lat="39.86513323190285" lon="8.78962713659221"><ele>172.0</ele><time>2026-04-27T09:05:19.942Z</time></trkpt><trkpt lat="39.8650230972512" lon="8.789542483760988"><ele>172.0</ele><time>2026-04-27T09:05:20.942Z</time></trkpt><trkpt lat="39.86492095579636" lon="8.789482586397297"><ele>172.0</ele><time>2026-04-27T09:05:21.942Z</time></trkpt><trkpt lat="39.86481293917266" lon="8.789450287943902"><ele>169.5</ele><time>2026-04-27T09:05:22.942Z</time></trkpt><trkpt lat="39.864690563820766" lon="8.78944439809005"><ele>167.0</ele><time>2026-04-27T09:05:23.942Z</time></trkpt><trkpt lat="39.86455689701642" lon="8.789436400122103"><ele>164.5</ele><time>2026-04-27T09:05:24.942Z</time></trkpt><trkpt lat="39.86442342133857" lon="8.789412654137687"><ele>162.0</ele><time>2026-04-27T09:05:25.942Z</time></trkpt><trkpt lat="39.86429052418687" lon="8.789374637579508"><ele>166.25</ele><time>2026-04-27T09:05:26.942Z</time></trkpt><trkpt lat="39.86415739528206" lon="8.789332795860386"><ele>170.5</ele><time>2026-04-27T09:05:27.942Z</time></trkpt><trkpt lat="39.864022895390285" lon="8.789294542472573"><ele>174.75</ele><time>2026-04-27T09:05:28.942Z</time></trkpt><trkpt lat="39.863884275721944" lon="8.789249862981471"><ele>179.0</ele><time>2026-04-27T09:05:29.942Z</time></trkpt><trkpt lat="39.86374084616312" lon="8.789205776260571"><ele>179.0</ele><time>2026-04-27T09:05:30.942Z</time></trkpt><trkpt lat="39.86359929609629" lon="8.789163848964096"><ele>179.0</ele><time>2026-04-27T09:05:31.942Z</time></trkpt><trkpt lat="39.86346704388993" lon="8.789095915323689"><ele>179.0</ele><time>2026-04-27T09:05:32.942Z</time></trkpt><trkpt lat="39.86334492930777" lon="8.788997248050334"><ele>179.0</ele><time>2026-04-27T09:05:33.942Z</time></trkpt><trkpt lat="39.86320865876943" lon="8.788946003874566"><ele>178.0</ele><time>2026-04-27T09:05:34.942Z</time></trkpt><trkpt lat="39.86306689018743" lon="8.788890643737417"><ele>177.0</ele><time>2026-04-27T09:05:35.942Z</time></trkpt><trkpt lat="39.862923983723384" lon="8.788840492003525"><ele>176.0</ele><time>2026-04-27T09:05:36.942Z</time></trkpt><trkpt lat="39.86280332841911" lon="8.788803739334993"><ele>175.0</ele><time>2026-04-27T09:05:37.942Z</time></trkpt><trkpt lat="39.86271417256771" lon="8.788772028550886"><ele>175.0</ele><time>2026-04-27T09:05:38.942Z</time></trkpt><trkpt lat="39.86265066892475" lon="8.78877187908757"><ele>175.0</ele><time>2026-04-27T09:05:39.942Z</time></trkpt><trkpt lat="39.86259035886063" lon="8.788800577520847"><ele>175.0</ele><time>2026-04-27T09:05:40.942Z</time></trkpt><trkpt lat="39.86253840738295" lon="8.788855018727919"><ele>175.0</ele><time>2026-04-27T09:05:41.942Z</time></trkpt><trkpt lat="39.862480638105374" lon="8.788924569558567"><ele>175.0</ele><time>2026-04-27T09:05:42.942Z</time></trkpt><trkpt lat="39.862412034813694" lon="8.78901708823138"><ele>175.0</ele><time>2026-04-27T09:05:43.942Z</time></trkpt><trkpt lat="39.8623289079637" lon="8.78910251081367"><ele>177.8</ele><time>2026-04-27T09:05:44.942Z</time></trkpt><trkpt lat="39.86225176865014" lon="8.789205910256781"><ele>180.6</ele><time>2026-04-27T09:05:45.942Z</time></trkpt><trkpt lat="39.86217172661569" lon="8.789297936169081"><ele>183.39999999999998</ele><time>2026-04-27T09:05:46.942Z</time></trkpt><trkpt lat="39.862096463307985" lon="8.789384772301304"><ele>186.2</ele><time>2026-04-27T09:05:47.942Z</time></trkpt><trkpt lat="39.862012199768564" lon="8.789462377766233"><ele>189.0</ele><time>2026-04-27T09:05:48.942Z</time></trkpt><trkpt lat="39.8619270293969" lon="8.789546337721147"><ele>190.75</ele><time>2026-04-27T09:05:49.942Z</time></trkpt><trkpt lat="39.861836606124534" lon="8.789622377651213"><ele>192.5</ele><time>2026-04-27T09:05:50.942Z</time></trkpt><trkpt lat="39.86173154601112" lon="8.789671405951164"><ele>194.25</ele><time>2026-04-27T09:05:51.942Z</time></trkpt><trkpt lat="39.86161449691581" lon="8.789726626552095"><ele>196.0</ele><time>2026-04-27T09:05:52.942Z</time></trkpt><trkpt lat="39.86150046662294" lon="8.78979783858626"><ele>196.75</ele><time>2026-04-27T09:05:53.942Z</time></trkpt><trkpt lat="39.86138133300615" lon="8.789865658679465"><ele>197.5</ele><time>2026-04-27T09:05:54.942Z</time></trkpt><trkpt lat="39.86125939974122" lon="8.789926484745942"><ele>198.25</ele><time>2026-04-27T09:05:55.942Z</time></trkpt><trkpt lat="39.86113019879068" lon="8.789971698413012"><ele>199.0</ele><time>2026-04-27T09:05:56.942Z</time></trkpt><trkpt lat="39.861007627847535" lon="8.790010201879639"><ele>200.75</ele><time>2026-04-27T09:05:57.942Z</time></trkpt><trkpt lat="39.86087411304399" lon="8.790027535324915"><ele>202.5</ele><time>2026-04-27T09:05:58.942Z</time></trkpt><trkpt lat="39.86074247492184" lon="8.790031546743755"><ele>204.25</ele><time>2026-04-27T09:05:59.942Z</time></trkpt><trkpt lat="39.860604520242966" lon="8.790042035676253"><ele>206.0</ele><time>2026-04-27T09:06:00.942Z</time></trkpt><trkpt lat="39.86047006735066" lon="8.790068399212716"><ele>206.0</ele><time>2026-04-27T09:06:01.942Z</time></trkpt><trkpt lat="39.86036528612643" lon="8.79009263877085"><ele>206.0</ele><time>2026-04-27T09:06:02.942Z</time></trkpt><trkpt lat="39.86026880229045" lon="8.790127949472376"><ele>206.0</ele><time>2026-04-27T09:06:03.942Z</time></trkpt><trkpt lat="39.860182589097164" lon="8.790183552706743"><ele>206.0</ele><time>2026-04-27T09:06:04.942Z</time></trkpt><trkpt lat="39.86009322993775" lon="8.79025807203232"><ele>206.0</ele><time>2026-04-27T09:06:05.942Z</time></trkpt><trkpt lat="39.860011078572704" lon="8.790355723246972"><ele>205.20000000000002</ele><time>2026-04-27T09:06:06.942Z</time></trkpt><trkpt lat="39.85992465918986" lon="8.790438927075357"><ele>204.4</ele><time>2026-04-27T09:06:07.942Z</time></trkpt><trkpt lat="39.859829656008415" lon="8.79045147235999"><ele>203.6</ele><time>2026-04-27T09:06:08.942Z</time></trkpt><trkpt lat="39.85974605582159" lon="8.790446775299918"><ele>202.8</ele><time>2026-04-27T09:06:09.942Z</time></trkpt><trkpt lat="39.8596738975432" lon="8.790401985024802"><ele>202.0</ele><time>2026-04-27T09:06:10.942Z</time></trkpt><trkpt lat="39.85957971432172" lon="8.79035665971892"><ele>202.0</ele><time>2026-04-27T09:06:11.942Z</time></trkpt><trkpt lat="39.85947524328427" lon="8.790308819247615"><ele>202.0</ele><time>2026-04-27T09:06:12.942Z</time></trkpt><trkpt lat="39.859343175658346" lon="8.790266071559637"><ele>202.0</ele><time>2026-04-27T09:06:13.942Z</time></trkpt><trkpt lat="39.859215367759106" lon="8.790187539601583"><ele>202.0</ele><time>2026-04-27T09:06:14.942Z</time></trkpt><trkpt lat="39.85908668032367" lon="8.79012292333334"><ele>204.25</ele><time>2026-04-27T09:06:15.942Z</time></trkpt><trkpt lat="39.858964954091896" lon="8.79006106305824"><ele>206.5</ele><time>2026-04-27T09:06:16.942Z</time></trkpt><trkpt lat="39.85886540734063" lon="8.790002724758091"><ele>208.75</ele><time>2026-04-27T09:06:17.942Z</time></trkpt><trkpt lat="39.85877996101983" lon="8.789933212019118"><ele>211.0</ele><time>2026-04-27T09:06:18.942Z</time></trkpt><trkpt lat="39.85869452915478" lon="8.789836424805184"><ele>211.0</ele><time>2026-04-27T09:06:19.942Z</time></trkpt><trkpt lat="39.85861779422944" lon="8.789722535438305"><ele>211.0</ele><time>2026-04-27T09:06:20.942Z</time></trkpt><trkpt lat="39.85853063671467" lon="8.789636505875567"><ele>211.0</ele><time>2026-04-27T09:06:21.942Z</time></trkpt><trkpt lat="39.85845367909228" lon="8.789594540324062"><ele>211.0</ele><time>2026-04-27T09:06:22.942Z</time></trkpt><trkpt lat="39.8583682863092" lon="8.789594387625655"><ele>211.0</ele><time>2026-04-27T09:06:23.942Z</time></trkpt><trkpt lat="39.85827307227532" lon="8.789577841405242"><ele>209.0</ele><time>2026-04-27T09:06:24.942Z</time></trkpt><trkpt lat="39.85817725712858" lon="8.789606857793949"><ele>207.0</ele><time>2026-04-27T09:06:25.942Z</time></trkpt><trkpt lat="39.858093017256" lon="8.789648242938421"><ele>205.0</ele><time>2026-04-27T09:06:26.942Z</time></trkpt><trkpt lat="39.85799086275248" lon="8.789711831648354"><ele>203.0</ele><time>2026-04-27T09:06:27.942Z</time></trkpt><trkpt lat="39.857880161228216" lon="8.789775726736563"><ele>201.0</ele><time>2026-04-27T09:06:28.942Z</time></trkpt><trkpt lat="39.857778344297564" lon="8.78983418876535"><ele>201.0</ele><time>2026-04-27T09:06:29.942Z</time></trkpt><trkpt lat="39.85767765507581" lon="8.78986307960718"><ele>201.0</ele><time>2026-04-27T09:06:30.942Z</time></trkpt><trkpt lat="39.85758645724554" lon="8.789900843254744"><ele>201.0</ele><time>2026-04-27T09:06:31.942Z</time></trkpt><trkpt lat="39.85750948593552" lon="8.789918404838957"><ele>201.0</ele><time>2026-04-27T09:06:32.942Z</time></trkpt><trkpt lat="39.85743472599663" lon="8.789914621341048"><ele>201.0</ele><time>2026-04-27T09:06:33.942Z</time></trkpt><trkpt lat="39.8573664885364" lon="8.789883080908485"><ele>201.0</ele><time>2026-04-27T09:06:34.942Z</time></trkpt><trkpt lat="39.85731006565114" lon="8.789817751552683"><ele>202.33333333333334</ele><time>2026-04-27T09:06:35.942Z</time></trkpt><trkpt lat="39.85726657084132" lon="8.789738095909506"><ele>203.66666666666669</ele><time>2026-04-27T09:06:36.942Z</time></trkpt><trkpt lat="39.85722632885169" lon="8.789646648579188"><ele>205.0</ele><time>2026-04-27T09:06:37.941Z</time></trkpt><trkpt lat="39.85719257089988" lon="8.789547402138114"><ele>206.33333333333334</ele><time>2026-04-27T09:06:38.94Z</time></trkpt><trkpt lat="39.85715942367448" lon="8.78943737914889"><ele>207.66666666666669</ele><time>2026-04-27T09:06:39.94Z</time></trkpt><trkpt lat="39.85712162898066" lon="8.789320243753982"><ele>209.0</ele><time>2026-04-27T09:06:40.941Z</time></trkpt><trkpt lat="39.85706689796375" lon="8.78922501172322"><ele>210.00000000000003</ele><time>2026-04-27T09:06:41.94Z</time></trkpt><trkpt lat="39.8570355891589" lon="8.78912377096166"><ele>211.0</ele><time>2026-04-27T09:06:42.94Z</time></trkpt><trkpt lat="39.857000255767645" lon="8.789032864233992"><ele>212.0</ele><time>2026-04-27T09:06:43.94Z</time></trkpt><trkpt lat="39.856968126855705" lon="8.788951335608127"><ele>213.0</ele><time>2026-04-27T09:06:44.94Z</time></trkpt><trkpt lat="39.85693831979615" lon="8.78887500881066"><ele>214.00000000000003</ele><time>2026-04-27T09:06:45.94Z</time></trkpt><trkpt lat="39.85688210233979" lon="8.788728643691917"><ele>215.0</ele><time>2026-04-27T09:06:47.94Z</time></trkpt><trkpt lat="39.85685085708309" lon="8.78864695498173"><ele>215.0</ele><time>2026-04-27T09:06:48.94Z</time></trkpt><trkpt lat="39.85683510465657" lon="8.788550977469026"><ele>215.0</ele><time>2026-04-27T09:06:49.94Z</time></trkpt><trkpt lat="39.85679128305218" lon="8.788459890526523"><ele>215.0</ele><time>2026-04-27T09:06:50.94Z</time></trkpt><trkpt lat="39.85673966494274" lon="8.788354042495524"><ele>215.0</ele><time>2026-04-27T09:06:51.94Z</time></trkpt><trkpt lat="39.856696568880075" lon="8.788230401494246"><ele>215.0</ele><time>2026-04-27T09:06:52.94Z</time></trkpt><trkpt lat="39.8566493879048" lon="8.788097329553423"><ele>214.2</ele><time>2026-04-27T09:06:53.94Z</time></trkpt><trkpt lat="39.85660125467507" lon="8.7879587961172"><ele>213.4</ele><time>2026-04-27T09:06:54.94Z</time></trkpt><trkpt lat="39.85654835148799" lon="8.787835656109127"><ele>212.60000000000002</ele><time>2026-04-27T09:06:55.94Z</time></trkpt><trkpt lat="39.85651884943054" lon="8.787725217928841"><ele>211.8</ele><time>2026-04-27T09:06:56.94Z</time></trkpt><trkpt lat="39.8565023295083" lon="8.787609376281917"><ele>211.0</ele><time>2026-04-27T09:06:57.94Z</time></trkpt><trkpt lat="39.85649987716627" lon="8.787488406974843"><ele>210.99999999999997</ele><time>2026-04-27T09:06:58.94Z</time></trkpt><trkpt lat="39.85650877569933" lon="8.787369760356503"><ele>211.0</ele><time>2026-04-27T09:06:59.94Z</time></trkpt><trkpt lat="39.85654885673777" lon="8.787281410530012"><ele>211.0</ele><time>2026-04-27T09:07:00.94Z</time></trkpt><trkpt lat="39.85657440920451" lon="8.787175737333124"><ele>211.0</ele><time>2026-04-27T09:07:01.94Z</time></trkpt><trkpt lat="39.85660566415672" lon="8.787087840048958"><ele>210.99999999999997</ele><time>2026-04-27T09:07:02.94Z</time></trkpt><trkpt lat="39.85664007561121" lon="8.786993038152447"><ele>211.0</ele><time>2026-04-27T09:07:03.94Z</time></trkpt><trkpt lat="39.85666089094002" lon="8.786886708414052"><ele>212.49999999999997</ele><time>2026-04-27T09:07:04.94Z</time></trkpt><trkpt lat="39.8566625245825" lon="8.786785590737656"><ele>214.0</ele><time>2026-04-27T09:07:05.94Z</time></trkpt><trkpt lat="39.85667031705604" lon="8.786701277639615"><ele>215.5</ele><time>2026-04-27T09:07:06.94Z</time></trkpt><trkpt lat="39.856621980870585" lon="8.786620593011207"><ele>217.0</ele><time>2026-04-27T09:07:07.94Z</time></trkpt><trkpt lat="39.85656819181973" lon="8.786543811812106"><ele>218.49999999999997</ele><time>2026-04-27T09:07:08.94Z</time></trkpt><trkpt lat="39.85650858768732" lon="8.786475885545874"><ele>220.0</ele><time>2026-04-27T09:07:09.94Z</time></trkpt><trkpt lat="39.85644537307888" lon="8.786419500076018"><ele>219.99999999999997</ele><time>2026-04-27T09:07:10.94Z</time></trkpt><trkpt lat="39.85637868802426" lon="8.786363335221829"><ele>220.0</ele><time>2026-04-27T09:07:11.94Z</time></trkpt><trkpt lat="39.85631101784673" lon="8.78631837936891"><ele>220.0</ele><time>2026-04-27T09:07:12.94Z</time></trkpt><trkpt lat="39.85622982341235" lon="8.786283770577638"><ele>220.0</ele><time>2026-04-27T09:07:13.94Z</time></trkpt><trkpt lat="39.856157682561964" lon="8.786245330390587"><ele>219.99999999999997</ele><time>2026-04-27T09:07:14.94Z</time></trkpt><trkpt lat="39.85608149153043" lon="8.786214888662673"><ele>220.0</ele><time>2026-04-27T09:07:15.94Z</time></trkpt><trkpt lat="39.855993452614264" lon="8.786205436122252"><ele>220.49999999999997</ele><time>2026-04-27T09:07:16.94Z</time></trkpt><trkpt lat="39.85590330351828" lon="8.786204809982827"><ele>221.0</ele><time>2026-04-27T09:07:17.94Z</time></trkpt><trkpt lat="39.85581165812752" lon="8.786203727512753"><ele>221.5</ele><time>2026-04-27T09:07:18.94Z</time></trkpt><trkpt lat="39.855722514512976" lon="8.786232700690531"><ele>222.0</ele><time>2026-04-27T09:07:19.94Z</time></trkpt><trkpt lat="39.85565195236428" lon="8.786287746348677"><ele>222.49999999999997</ele><time>2026-04-27T09:07:20.94Z</time></trkpt><trkpt lat="39.855577010077205" lon="8.786317620916767"><ele>223.0</ele><time>2026-04-27T09:07:21.94Z</time></trkpt><trkpt lat="39.85549955073658" lon="8.786359988090716"><ele>222.99999999999997</ele><time>2026-04-27T09:07:22.94Z</time></trkpt><trkpt lat="39.855418071194705" lon="8.786391206790583"><ele>223.0</ele><time>2026-04-27T09:07:23.94Z</time></trkpt><trkpt lat="39.855335164505256" lon="8.78638815987422"><ele>223.0</ele><time>2026-04-27T09:07:24.94Z</time></trkpt><trkpt lat="39.85524437485033" lon="8.786398584086946"><ele>223.0</ele><time>2026-04-27T09:07:25.94Z</time></trkpt><trkpt lat="39.855163912513035" lon="8.786396812260476"><ele>222.99999999999997</ele><time>2026-04-27T09:07:26.94Z</time></trkpt><trkpt lat="39.8550830138467" lon="8.786393851717122"><ele>223.0</ele><time>2026-04-27T09:07:27.94Z</time></trkpt><trkpt lat="39.855016880827336" lon="8.786348106059112"><ele>226.4</ele><time>2026-04-27T09:07:28.94Z</time></trkpt><trkpt lat="39.854961033716386" lon="8.786276154281591"><ele>229.8</ele><time>2026-04-27T09:07:29.94Z</time></trkpt><trkpt lat="39.854892148946945" lon="8.786195734588848"><ele>233.2</ele><time>2026-04-27T09:07:30.94Z</time></trkpt><trkpt lat="39.85483355769377" lon="8.786116475997584"><ele>236.6</ele><time>2026-04-27T09:07:31.94Z</time></trkpt><trkpt lat="39.85476683327987" lon="8.786036141725624"><ele>240.0</ele><time>2026-04-27T09:07:32.94Z</time></trkpt><trkpt lat="39.85468487108884" lon="8.785953060855778"><ele>242.25</ele><time>2026-04-27T09:07:33.94Z</time></trkpt><trkpt lat="39.854595493715955" lon="8.785869515950832"><ele>244.5</ele><time>2026-04-27T09:07:34.94Z</time></trkpt><trkpt lat="39.85450908214335" lon="8.785785327093999"><ele>246.75</ele><time>2026-04-27T09:07:35.94Z</time></trkpt><trkpt lat="39.85442587738719" lon="8.785683956420588"><ele>249.0</ele><time>2026-04-27T09:07:36.94Z</time></trkpt><trkpt lat="39.854330206273275" lon="8.785572767640916"><ele>248.6</ele><time>2026-04-27T09:07:37.94Z</time></trkpt><trkpt lat="39.85422263678912" lon="8.785461938848695"><ele>248.2</ele><time>2026-04-27T09:07:38.94Z</time></trkpt><trkpt lat="39.854124611619646" lon="8.78537546393"><ele>247.79999999999998</ele><time>2026-04-27T09:07:39.94Z</time></trkpt><trkpt lat="39.85403810781567" lon="8.785310576078883"><ele>247.39999999999998</ele><time>2026-04-27T09:07:40.94Z</time></trkpt><trkpt lat="39.85395929640761" lon="8.785266514394497"><ele>247.0</ele><time>2026-04-27T09:07:41.94Z</time></trkpt><trkpt lat="39.853878371200246" lon="8.785238900715482"><ele>247.0</ele><time>2026-04-27T09:07:42.94Z</time></trkpt><trkpt lat="39.85378635123916" lon="8.785247230248066"><ele>247.0</ele><time>2026-04-27T09:07:43.94Z</time></trkpt><trkpt lat="39.85369567766458" lon="8.78528139575318"><ele>247.0</ele><time>2026-04-27T09:07:44.94Z</time></trkpt><trkpt lat="39.853596560737195" lon="8.785308203785581"><ele>247.0</ele><time>2026-04-27T09:07:45.94Z</time></trkpt><trkpt lat="39.85349944158409" lon="8.785327856960153"><ele>247.0</ele><time>2026-04-27T09:07:46.94Z</time></trkpt><trkpt lat="39.85340136208834" lon="8.785327161170386"><ele>246.16666666666666</ele><time>2026-04-27T09:07:47.94Z</time></trkpt><trkpt lat="39.853314724697704" lon="8.785275598086153"><ele>245.33333333333331</ele><time>2026-04-27T09:07:48.94Z</time></trkpt><trkpt lat="39.85324013955862" lon="8.785236420359679"><ele>244.5</ele><time>2026-04-27T09:07:49.94Z</time></trkpt><trkpt lat="39.85316719180807" lon="8.78517738755193"><ele>243.66666666666669</ele><time>2026-04-27T09:07:50.94Z</time></trkpt><trkpt lat="39.85309661275785" lon="8.785115123111904"><ele>242.83333333333334</ele><time>2026-04-27T09:07:51.94Z</time></trkpt><trkpt lat="39.85303076717235" lon="8.785049913868068"><ele>242.0</ele><time>2026-04-27T09:07:52.94Z</time></trkpt><trkpt lat="39.85297044974784" lon="8.78499084285819"><ele>245.0</ele><time>2026-04-27T09:07:53.94Z</time></trkpt><trkpt lat="39.85289999099356" lon="8.784924009863623"><ele>248.0</ele><time>2026-04-27T09:07:54.94Z</time></trkpt><trkpt lat="39.85281747021312" lon="8.78486065432748"><ele>251.0</ele><time>2026-04-27T09:07:55.94Z</time></trkpt><trkpt lat="39.852725715495254" lon="8.784817757271187"><ele>254.0</ele><time>2026-04-27T09:07:56.94Z</time></trkpt><trkpt lat="39.85263213285036" lon="8.78477036781614"><ele>257.0</ele><time>2026-04-27T09:07:57.94Z</time></trkpt><trkpt lat="39.8525316543194" lon="8.78473641269404"><ele>257.8</ele><time>2026-04-27T09:07:58.94Z</time></trkpt><trkpt lat="39.852441929047664" lon="8.784696489965743"><ele>258.6</ele><time>2026-04-27T09:07:59.94Z</time></trkpt><trkpt lat="39.85234791197815" lon="8.784723555592734"><ele>259.40000000000003</ele><time>2026-04-27T09:08:00.94Z</time></trkpt><trkpt lat="39.85224912404145" lon="8.784754620668462"><ele>260.2</ele><time>2026-04-27T09:08:01.94Z</time></trkpt><trkpt lat="39.852149274135016" lon="8.784800111805998"><ele>261.0</ele><time>2026-04-27T09:08:02.94Z</time></trkpt><trkpt lat="39.85204720803167" lon="8.784870976231048"><ele>261.0</ele><time>2026-04-27T09:08:03.94Z</time></trkpt><trkpt lat="39.851933733309465" lon="8.784909153022308"><ele>261.0</ele><time>2026-04-27T09:08:04.94Z</time></trkpt><trkpt lat="39.85181578263167" lon="8.78497472124715"><ele>261.0</ele><time>2026-04-27T09:08:05.94Z</time></trkpt><trkpt lat="39.85170328706997" lon="8.785042465400664"><ele>261.0</ele><time>2026-04-27T09:08:06.94Z</time></trkpt><trkpt lat="39.8515963286184" lon="8.785110145386032"><ele>258.5</ele><time>2026-04-27T09:08:07.94Z</time></trkpt><trkpt lat="39.85149023698699" lon="8.785191215329336"><ele>256.0</ele><time>2026-04-27T09:08:08.94Z</time></trkpt><trkpt lat="39.85139130292577" lon="8.785279482878428"><ele>253.5</ele><time>2026-04-27T09:08:09.94Z</time></trkpt><trkpt lat="39.8512899146321" lon="8.785349058147023"><ele>251.0</ele><time>2026-04-27T09:08:10.94Z</time></trkpt><trkpt lat="39.8511936195832" lon="8.785430416499798"><ele>251.0</ele><time>2026-04-27T09:08:11.94Z</time></trkpt><trkpt lat="39.851095569679444" lon="8.78549444477201"><ele>251.00000000000003</ele><time>2026-04-27T09:08:12.94Z</time></trkpt><trkpt lat="39.85100472404793" lon="8.785562126893616"><ele>251.00000000000003</ele><time>2026-04-27T09:08:13.94Z</time></trkpt><trkpt lat="39.85092561060389" lon="8.785642164819963"><ele>251.0</ele><time>2026-04-27T09:08:14.94Z</time></trkpt><trkpt lat="39.85084181963694" lon="8.78570430845952"><ele>251.0</ele><time>2026-04-27T09:08:15.94Z</time></trkpt><trkpt lat="39.850757717895455" lon="8.785742210431"><ele>253.60000000000002</ele><time>2026-04-27T09:08:16.94Z</time></trkpt><trkpt lat="39.85067324872655" lon="8.78574460515795"><ele>256.20000000000005</ele><time>2026-04-27T09:08:17.94Z</time></trkpt><trkpt lat="39.850577994322464" lon="8.785719236017938"><ele>258.79999999999995</ele><time>2026-04-27T09:08:18.94Z</time></trkpt><trkpt lat="39.85050114530208" lon="8.785667456592273"><ele>261.4</ele><time>2026-04-27T09:08:19.94Z</time></trkpt><trkpt lat="39.85043854291123" lon="8.785578913164775"><ele>264.0</ele><time>2026-04-27T09:08:20.94Z</time></trkpt><trkpt lat="39.85036002529512" lon="8.785496492052308"><ele>264.0</ele><time>2026-04-27T09:08:21.94Z</time></trkpt><trkpt lat="39.85029180517095" lon="8.785413103876547"><ele>264.0</ele><time>2026-04-27T09:08:22.94Z</time></trkpt><trkpt lat="39.85021549060903" lon="8.785320331017772"><ele>264.0</ele><time>2026-04-27T09:08:23.94Z</time></trkpt><trkpt lat="39.85013693756366" lon="8.785228606468966"><ele>264.0</ele><time>2026-04-27T09:08:24.94Z</time></trkpt><trkpt lat="39.85004176315642" lon="8.785134407002825"><ele>264.0</ele><time>2026-04-27T09:08:25.94Z</time></trkpt><trkpt lat="39.84994039840082" lon="8.785044497300472"><ele>267.75</ele><time>2026-04-27T09:08:26.94Z</time></trkpt><trkpt lat="39.849839059591275" lon="8.784969744161229"><ele>271.5</ele><time>2026-04-27T09:08:27.94Z</time></trkpt><trkpt lat="39.84973302198335" lon="8.784906788139903"><ele>275.25</ele><time>2026-04-27T09:08:28.94Z</time></trkpt><trkpt lat="39.84962722702129" lon="8.78484747638486"><ele>279.0</ele><time>2026-04-27T09:08:29.94Z</time></trkpt><trkpt lat="39.84951609384075" lon="8.784811927229264"><ele>279.0</ele><time>2026-04-27T09:08:30.94Z</time></trkpt><trkpt lat="39.84940587272631" lon="8.78476456935082"><ele>279.0</ele><time>2026-04-27T09:08:31.94Z</time></trkpt><trkpt lat="39.84930602934924" lon="8.784693641944651"><ele>279.0</ele><time>2026-04-27T09:08:32.94Z</time></trkpt><trkpt lat="39.84919223919063" lon="8.784646936379561"><ele>279.0</ele><time>2026-04-27T09:08:33.94Z</time></trkpt><trkpt lat="39.84907842579318" lon="8.784601432638423"><ele>280.59999999999997</ele><time>2026-04-27T09:08:34.94Z</time></trkpt><trkpt lat="39.84897096538441" lon="8.784568939766698"><ele>282.2</ele><time>2026-04-27T09:08:35.94Z</time></trkpt><trkpt lat="39.84886684254861" lon="8.784562163000833"><ele>283.79999999999995</ele><time>2026-04-27T09:08:36.94Z</time></trkpt><trkpt lat="39.84876729788727" lon="8.784578438339631"><ele>285.4</ele><time>2026-04-27T09:08:37.94Z</time></trkpt><trkpt lat="39.848663787464766" lon="8.784588522565526"><ele>287.0</ele><time>2026-04-27T09:08:38.94Z</time></trkpt><trkpt lat="39.848561700801106" lon="8.784613238818459"><ele>287.0</ele><time>2026-04-27T09:08:39.94Z</time></trkpt><trkpt lat="39.84845973180479" lon="8.784665831800458"><ele>287.0</ele><time>2026-04-27T09:08:40.94Z</time></trkpt><trkpt lat="39.84834892322491" lon="8.784696778376404"><ele>287.0</ele><time>2026-04-27T09:08:41.94Z</time></trkpt><trkpt lat="39.848232230919315" lon="8.784722971642841"><ele>287.0</ele><time>2026-04-27T09:08:42.939Z</time></trkpt><trkpt lat="39.84813375493316" lon="8.784775551804769"><ele>287.0</ele><time>2026-04-27T09:08:43.939Z</time></trkpt><trkpt lat="39.84802643156488" lon="8.78481007916203"><ele>289.75</ele><time>2026-04-27T09:08:44.939Z</time></trkpt><trkpt lat="39.84791689588005" lon="8.784840328048656"><ele>292.5</ele><time>2026-04-27T09:08:45.938Z</time></trkpt><trkpt lat="39.84780638553494" lon="8.784882038332977"><ele>295.25</ele><time>2026-04-27T09:08:46.939Z</time></trkpt><trkpt lat="39.84769064155521" lon="8.784911303350633"><ele>298.0</ele><time>2026-04-27T09:08:47.939Z</time></trkpt><trkpt lat="39.84758249027933" lon="8.784952556546273"><ele>299.5</ele><time>2026-04-27T09:08:48.938Z</time></trkpt><trkpt lat="39.847475106827105" lon="8.784992836255787"><ele>301.0</ele><time>2026-04-27T09:08:49.939Z</time></trkpt><trkpt lat="39.847375345361236" lon="8.784996353118125"><ele>302.5</ele><time>2026-04-27T09:08:50.939Z</time></trkpt><trkpt lat="39.84729519307276" lon="8.785001417856384"><ele>304.0</ele><time>2026-04-27T09:08:51.938Z</time></trkpt><trkpt lat="39.84723745345646" lon="8.784961352578739"><ele>305.5</ele><time>2026-04-27T09:08:52.939Z</time></trkpt><trkpt lat="39.847187661710976" lon="8.784890406044939"><ele>307.0</ele><time>2026-04-27T09:08:53.939Z</time></trkpt><trkpt lat="39.84716505794803" lon="8.784807517448668"><ele>307.0</ele><time>2026-04-27T09:08:54.938Z</time></trkpt><trkpt lat="39.84713308653272" lon="8.784698158258083"><ele>307.0</ele><time>2026-04-27T09:08:55.939Z</time></trkpt><trkpt lat="39.84709495675364" lon="8.784569590219254"><ele>307.0</ele><time>2026-04-27T09:08:56.939Z</time></trkpt><trkpt lat="39.8470693619776" lon="8.784450916237304"><ele>307.0</ele><time>2026-04-27T09:08:57.939Z</time></trkpt><trkpt lat="39.84705298768499" lon="8.784322883130042"><ele>307.0</ele><time>2026-04-27T09:08:58.939Z</time></trkpt><trkpt lat="39.847020265237234" lon="8.784195374080586"><ele>308.8</ele><time>2026-04-27T09:08:59.939Z</time></trkpt><trkpt lat="39.84698691108721" lon="8.784071443991548"><ele>310.6</ele><time>2026-04-27T09:09:00.939Z</time></trkpt><trkpt lat="39.846943876114025" lon="8.78394202627019"><ele>312.40000000000003</ele><time>2026-04-27T09:09:01.939Z</time></trkpt><trkpt lat="39.84689764639266" lon="8.78381513031392"><ele>314.2</ele><time>2026-04-27T09:09:02.939Z</time></trkpt><trkpt lat="39.84683925421633" lon="8.783697281625884"><ele>316.0</ele><time>2026-04-27T09:09:03.939Z</time></trkpt><trkpt lat="39.84678650949645" lon="8.783569188022604"><ele>317.6</ele><time>2026-04-27T09:09:04.939Z</time></trkpt><trkpt lat="39.84675388739778" lon="8.78344353118804"><ele>319.20000000000005</ele><time>2026-04-27T09:09:05.939Z</time></trkpt><trkpt lat="39.84670530432621" lon="8.783322451677302"><ele>320.79999999999995</ele><time>2026-04-27T09:09:06.939Z</time></trkpt><trkpt lat="39.846660187843014" lon="8.783219114395722"><ele>322.4</ele><time>2026-04-27T09:09:07.939Z</time></trkpt><trkpt lat="39.84662146739822" lon="8.783139419905504"><ele>324.0</ele><time>2026-04-27T09:09:08.939Z</time></trkpt><trkpt lat="39.84659157814545" lon="8.78302931356373"><ele>324.0</ele><time>2026-04-27T09:09:10.939Z</time></trkpt><trkpt lat="39.84664024432846" lon="8.782870096431413"><ele>324.0</ele><time>2026-04-27T09:09:12.939Z</time></trkpt><trkpt lat="39.84669054001672" lon="8.78277653199583"><ele>324.0</ele><time>2026-04-27T09:09:13.939Z</time></trkpt><trkpt lat="39.846723808733586" lon="8.782667742039841"><ele>324.0</ele><time>2026-04-27T09:09:14.939Z</time></trkpt><trkpt lat="39.84674270448204" lon="8.78255637554722"><ele>324.0</ele><time>2026-04-27T09:09:17.939Z</time></trkpt><trkpt lat="39.84675779200428" lon="8.782466981945944"><ele>324.0</ele><time>2026-04-27T09:09:24.939Z</time></trkpt><trkpt lat="39.84677029143576" lon="8.782362580078393"><ele>324.0</ele><time>2026-04-27T09:09:26.939Z</time></trkpt><trkpt lat="39.846775301436885" lon="8.78224550756665"><ele>324.0</ele><time>2026-04-27T09:09:28.939Z</time></trkpt><trkpt lat="39.8467705596894" lon="8.78211927406728"><ele>324.0</ele><time>2026-04-27T09:09:30.939Z</time></trkpt><trkpt lat="39.84680792187309" lon="8.782024069099146"><ele>324.0</ele><time>2026-04-27T09:09:32.939Z</time></trkpt><trkpt lat="39.84686634662942" lon="8.781936299435475"><ele>324.0</ele><time>2026-04-27T09:09:34.939Z</time></trkpt><trkpt lat="39.84694305445093" lon="8.781853184071416"><ele>322.6666666666667</ele><time>2026-04-27T09:09:36.939Z</time></trkpt><trkpt lat="39.84698578794327" lon="8.781791124617575"><ele>321.3333333333333</ele><time>2026-04-27T09:09:37.939Z</time></trkpt><trkpt lat="39.847044498981155" lon="8.781749637583665"><ele>320.0</ele><time>2026-04-27T09:09:38.939Z</time></trkpt><trkpt lat="39.84712552758419" lon="8.781659205494305"><ele>318.66666666666663</ele><time>2026-04-27T09:09:40.939Z</time></trkpt><trkpt lat="39.84714863486825" lon="8.781556130281697"><ele>317.3333333333333</ele><time>2026-04-27T09:09:41.939Z</time></trkpt><trkpt lat="39.847169592554614" lon="8.781418943877886"><ele>316.0</ele><time>2026-04-27T09:09:43.939Z</time></trkpt><trkpt lat="39.847200062111874" lon="8.781324067354426"><ele>316.0</ele><time>2026-04-27T09:09:44.939Z</time></trkpt><trkpt lat="39.84726178487971" lon="8.781253963872402"><ele>316.0</ele><time>2026-04-27T09:09:45.939Z</time></trkpt><trkpt lat="39.847351269121994" lon="8.78116369023648"><ele>316.0</ele><time>2026-04-27T09:09:47.939Z</time></trkpt><trkpt lat="39.847402214448024" lon="8.781112867444229"><ele>316.0</ele><time>2026-04-27T09:09:48.939Z</time></trkpt><trkpt lat="39.84744517906754" lon="8.781047236307503"><ele>316.0</ele><time>2026-04-27T09:09:49.939Z</time></trkpt><trkpt lat="39.847500403500746" lon="8.780939533856602"><ele>316.0</ele><time>2026-04-27T09:09:51.939Z</time></trkpt><trkpt lat="39.84759367171948" lon="8.78087410262886"><ele>315.0</ele><time>2026-04-27T09:09:54.939Z</time></trkpt><trkpt lat="39.847649656351344" lon="8.780815185855499"><ele>314.0</ele><time>2026-04-27T09:09:57.939Z</time></trkpt><trkpt lat="39.84758627919865" lon="8.780877681002242"><ele>313.0</ele><time>2026-04-27T09:10:58.936Z</time></trkpt><trkpt lat="39.84744008380176" lon="8.780699161945522"><ele>312.0</ele><time>2026-04-27T09:11:02.937Z</time></trkpt><trkpt lat="39.847356643958065" lon="8.780642880001901"><ele>311.0</ele><time>2026-04-27T09:11:04.937Z</time></trkpt><trkpt lat="39.847256739529236" lon="8.780617898654278"><ele>311.0</ele><time>2026-04-27T09:11:06.937Z</time></trkpt><trkpt lat="39.84715415224444" lon="8.780620657259265"><ele>311.0</ele><time>2026-04-27T09:11:08.937Z</time></trkpt><trkpt lat="39.847071368141926" lon="8.78057044903405"><ele>311.0</ele><time>2026-04-27T09:11:10.937Z</time></trkpt><trkpt lat="39.84696579177896" lon="8.780506753209718"><ele>311.0</ele><time>2026-04-27T09:11:12.937Z</time></trkpt><trkpt lat="39.84690621549845" lon="8.78046102674936"><ele>311.0</ele><time>2026-04-27T09:11:13.937Z</time></trkpt><trkpt lat="39.84681427559332" lon="8.780348276574488"><ele>313.1666666666667</ele><time>2026-04-27T09:11:15.937Z</time></trkpt><trkpt lat="39.84676611862889" lon="8.780286466152354"><ele>315.33333333333337</ele><time>2026-04-27T09:11:16.937Z</time></trkpt><trkpt lat="39.846732928199295" lon="8.780212752333217"><ele>317.5</ele><time>2026-04-27T09:11:17.937Z</time></trkpt><trkpt lat="39.846700190883105" lon="8.78012169421596"><ele>319.6666666666667</ele><time>2026-04-27T09:11:18.937Z</time></trkpt><trkpt lat="39.84666299688073" lon="8.780018210212177"><ele>321.8333333333333</ele><time>2026-04-27T09:11:19.937Z</time></trkpt><trkpt lat="39.84663652193814" lon="8.779936964521307"><ele>324.0</ele><time>2026-04-27T09:11:20.937Z</time></trkpt><trkpt lat="39.84659090331381" lon="8.77983396411779"><ele>324.0</ele><time>2026-04-27T09:11:21.937Z</time></trkpt><trkpt lat="39.84655414884205" lon="8.779744245550072"><ele>324.0</ele><time>2026-04-27T09:11:22.937Z</time></trkpt><trkpt lat="39.84652440327196" lon="8.77965948444581"><ele>324.0</ele><time>2026-04-27T09:11:23.937Z</time></trkpt><trkpt lat="39.846503009763325" lon="8.77954573627461"><ele>324.0</ele><time>2026-04-27T09:11:25.937Z</time></trkpt><trkpt lat="39.846460034191274" lon="8.77944133446685"><ele>324.0</ele><time>2026-04-27T09:11:26.937Z</time></trkpt><trkpt lat="39.846407577599194" lon="8.77935394730769"><ele>324.0</ele><time>2026-04-27T09:11:27.937Z</time></trkpt><trkpt lat="39.84636638780062" lon="8.779285390447962"><ele>324.79999999999995</ele><time>2026-04-27T09:11:28.937Z</time></trkpt><trkpt lat="39.846272263399875" lon="8.779184860609059"><ele>325.59999999999997</ele><time>2026-04-27T09:11:30.937Z</time></trkpt><trkpt lat="39.84615148630787" lon="8.779156799624502"><ele>326.4</ele><time>2026-04-27T09:11:32.937Z</time></trkpt><trkpt lat="39.84606438929344" lon="8.77920251337811"><ele>327.2</ele><time>2026-04-27T09:11:34.937Z</time></trkpt><trkpt lat="39.846014071920656" lon="8.779272656134301"><ele>328.0</ele><time>2026-04-27T09:11:35.937Z</time></trkpt><trkpt lat="39.845946118098176" lon="8.779339238413053"><ele>329.8333333333333</ele><time>2026-04-27T09:11:36.937Z</time></trkpt><trkpt lat="39.845882499107766" lon="8.779432018861286"><ele>331.66666666666663</ele><time>2026-04-27T09:11:37.937Z</time></trkpt><trkpt lat="39.845819146927916" lon="8.779493776533004"><ele>333.5</ele><time>2026-04-27T09:11:38.937Z</time></trkpt><trkpt lat="39.84576221881292" lon="8.779569117955976"><ele>335.3333333333333</ele><time>2026-04-27T09:11:39.937Z</time></trkpt><trkpt lat="39.84572565122861" lon="8.779639121446802"><ele>337.1666666666667</ele><time>2026-04-27T09:11:40.937Z</time></trkpt><trkpt lat="39.84565258381423" lon="8.779708774328146"><ele>339.0</ele><time>2026-04-27T09:11:42.937Z</time></trkpt><trkpt lat="39.845574660958754" lon="8.779749987494569"><ele>339.0</ele><time>2026-04-27T09:11:43.937Z</time></trkpt><trkpt lat="39.84547624375475" lon="8.779770600595732"><ele>339.0</ele><time>2026-04-27T09:11:44.937Z</time></trkpt><trkpt lat="39.84541153952163" lon="8.77975894478439"><ele>339.0</ele><time>2026-04-27T09:11:45.937Z</time></trkpt><trkpt lat="39.84535204016344" lon="8.779712406848594"><ele>339.0</ele><time>2026-04-27T09:11:46.937Z</time></trkpt><trkpt lat="39.84524002846943" lon="8.779663785267509"><ele>339.0</ele><time>2026-04-27T09:11:48.937Z</time></trkpt><trkpt lat="39.84514455820414" lon="8.77961615079025"><ele>340.3333333333333</ele><time>2026-04-27T09:11:50.937Z</time></trkpt><trkpt lat="39.8450696020947" lon="8.779577054525125"><ele>341.6666666666667</ele><time>2026-04-27T09:11:51.937Z</time></trkpt><trkpt lat="39.84499242084429" lon="8.779588375346417"><ele>343.0</ele><time>2026-04-27T09:11:52.937Z</time></trkpt><trkpt lat="39.844917164905695" lon="8.779589097081471"><ele>344.33333333333337</ele><time>2026-04-27T09:11:53.937Z</time></trkpt><trkpt lat="39.84484960614974" lon="8.779585389652226"><ele>345.6666666666667</ele><time>2026-04-27T09:11:54.937Z</time></trkpt><trkpt lat="39.844777382016424" lon="8.779594797961273"><ele>347.0</ele><time>2026-04-27T09:11:55.937Z</time></trkpt><trkpt lat="39.84469868975532" lon="8.77956859318512"><ele>347.0</ele><time>2026-04-27T09:11:56.937Z</time></trkpt><trkpt lat="39.84462153107451" lon="8.779542388219753"><ele>347.0</ele><time>2026-04-27T09:11:57.937Z</time></trkpt><trkpt lat="39.84453916287268" lon="8.779518281146297"><ele>347.0</ele><time>2026-04-27T09:11:58.937Z</time></trkpt><trkpt lat="39.84445583022043" lon="8.779487730600712"><ele>347.0</ele><time>2026-04-27T09:11:59.937Z</time></trkpt><trkpt lat="39.844362475703214" lon="8.779420449003965"><ele>347.0</ele><time>2026-04-27T09:12:01.937Z</time></trkpt><trkpt lat="39.8443196207153" lon="8.779337566555117"><ele>347.0</ele><time>2026-04-27T09:12:02.937Z</time></trkpt><trkpt lat="39.84430759058305" lon="8.779254042679252"><ele>346.0</ele><time>2026-04-27T09:12:03.937Z</time></trkpt><trkpt lat="39.844363386872686" lon="8.779132169140665"><ele>345.0</ele><time>2026-04-27T09:12:05.937Z</time></trkpt><trkpt lat="39.844387504214446" lon="8.779010715358885"><ele>344.0</ele><time>2026-04-27T09:12:07.937Z</time></trkpt><trkpt lat="39.84444954039461" lon="8.778891169152468"><ele>343.0</ele><time>2026-04-27T09:12:09.937Z</time></trkpt><trkpt lat="39.8444998976414" lon="8.778832954048505"><ele>342.0</ele><time>2026-04-27T09:12:10.937Z</time></trkpt><trkpt lat="39.844564391463635" lon="8.778778481983469"><ele>342.0</ele><time>2026-04-27T09:12:11.937Z</time></trkpt><trkpt lat="39.84462931743766" lon="8.778731413972162"><ele>342.0</ele><time>2026-04-27T09:12:12.937Z</time></trkpt><trkpt lat="39.84469273719496" lon="8.778699643264709"><ele>342.0</ele><time>2026-04-27T09:12:13.937Z</time></trkpt><trkpt lat="39.844752494346984" lon="8.778667729308356"><ele>342.0</ele><time>2026-04-27T09:12:14.937Z</time></trkpt><trkpt lat="39.84482152291172" lon="8.778579049694065"><ele>342.0</ele><time>2026-04-27T09:12:16.937Z</time></trkpt><trkpt lat="39.84486389546421" lon="8.77847100956958"><ele>342.0</ele><time>2026-04-27T09:12:18.937Z</time></trkpt><trkpt lat="39.844867586468744" lon="8.778347566856311"><ele>343.5</ele><time>2026-04-27T09:12:20.937Z</time></trkpt><trkpt lat="39.84481023227285" lon="8.778244304668458"><ele>345.0</ele><time>2026-04-27T09:12:22.937Z</time></trkpt><trkpt lat="39.84472756938368" lon="8.77820904232611"><ele>346.5</ele><time>2026-04-27T09:12:24.937Z</time></trkpt><trkpt lat="39.84461210378214" lon="8.778155122012151"><ele>348.0</ele><time>2026-04-27T09:12:26.937Z</time></trkpt><trkpt lat="39.84455711470817" lon="8.778105041484439"><ele>349.5</ele><time>2026-04-27T09:12:27.937Z</time></trkpt><trkpt lat="39.84449628591071" lon="8.778073875501153"><ele>351.0</ele><time>2026-04-27T09:12:28.937Z</time></trkpt><trkpt lat="39.844424086628784" lon="8.778064235032526"><ele>351.0</ele><time>2026-04-27T09:12:29.937Z</time></trkpt><trkpt lat="39.844357497413995" lon="8.77806870763771"><ele>351.0</ele><time>2026-04-27T09:12:30.937Z</time></trkpt><trkpt lat="39.84428191477141" lon="8.778058837261025"><ele>351.0</ele><time>2026-04-27T09:12:31.937Z</time></trkpt><trkpt lat="39.8442061662021" lon="8.7780433683393"><ele>351.0</ele><time>2026-04-27T09:12:32.937Z</time></trkpt><trkpt lat="39.844140668833795" lon="8.778031416428696"><ele>351.0</ele><time>2026-04-27T09:12:33.937Z</time></trkpt><trkpt lat="39.844011790855305" lon="8.778007065172849"><ele>351.0</ele><time>2026-04-27T09:12:35.937Z</time></trkpt><trkpt lat="39.84388922770253" lon="8.777976829923295"><ele>352.1666666666667</ele><time>2026-04-27T09:12:37.937Z</time></trkpt><trkpt lat="39.84382230461715" lon="8.777960834381336"><ele>353.3333333333333</ele><time>2026-04-27T09:12:38.937Z</time></trkpt><trkpt lat="39.84375248723217" lon="8.777939841452858"><ele>354.5</ele><time>2026-04-27T09:12:39.937Z</time></trkpt><trkpt lat="39.84368265098032" lon="8.777899657573428"><ele>355.66666666666663</ele><time>2026-04-27T09:12:40.937Z</time></trkpt><trkpt lat="39.84360936417155" lon="8.777855444960347"><ele>356.8333333333333</ele><time>2026-04-27T09:12:41.937Z</time></trkpt><trkpt lat="39.843534831673765" lon="8.777811611533798"><ele>358.0</ele><time>2026-04-27T09:12:42.937Z</time></trkpt><trkpt lat="39.84346996185565" lon="8.777773163577532"><ele>359.3333333333333</ele><time>2026-04-27T09:12:43.936Z</time></trkpt><trkpt lat="39.8433940487813" lon="8.777733105095933"><ele>360.66666666666663</ele><time>2026-04-27T09:12:44.936Z</time></trkpt><trkpt lat="39.84331936011329" lon="8.777695056939837"><ele>362.0</ele><time>2026-04-27T09:12:45.936Z</time></trkpt><trkpt lat="39.843246994994246" lon="8.777649176132066"><ele>363.3333333333333</ele><time>2026-04-27T09:12:46.936Z</time></trkpt><trkpt lat="39.8431652746594" lon="8.777606977843531"><ele>364.6666666666667</ele><time>2026-04-27T09:12:47.936Z</time></trkpt><trkpt lat="39.84310398369268" lon="8.777565138544237"><ele>366.0</ele><time>2026-04-27T09:12:48.936Z</time></trkpt><trkpt lat="39.8430348359363" lon="8.77753173363588"><ele>366.5</ele><time>2026-04-27T09:12:49.936Z</time></trkpt><trkpt lat="39.842968019492716" lon="8.777511902041029"><ele>367.0</ele><time>2026-04-27T09:12:50.936Z</time></trkpt><trkpt lat="39.842839037538596" lon="8.777493628767232"><ele>367.5</ele><time>2026-04-27T09:12:52.936Z</time></trkpt><trkpt lat="39.84276822431737" lon="8.777480656909512"><ele>368.0</ele><time>2026-04-27T09:12:53.936Z</time></trkpt><trkpt lat="39.84270159024749" lon="8.777446852654252"><ele>368.5</ele><time>2026-04-27T09:12:54.935Z</time></trkpt><trkpt lat="39.842642229060914" lon="8.777394490533963"><ele>369.0</ele><time>2026-04-27T09:12:55.935Z</time></trkpt><trkpt lat="39.842587432333474" lon="8.77733563464512"><ele>370.4</ele><time>2026-04-27T09:12:56.935Z</time></trkpt><trkpt lat="39.84248220760504" lon="8.77723492193147"><ele>371.79999999999995</ele><time>2026-04-27T09:12:58.936Z</time></trkpt><trkpt lat="39.84241013533067" lon="8.777143839982328"><ele>373.20000000000005</ele><time>2026-04-27T09:13:00.936Z</time></trkpt><trkpt lat="39.84235076122541" lon="8.777095894174979"><ele>374.6</ele><time>2026-04-27T09:13:01.935Z</time></trkpt><trkpt lat="39.84227556638357" lon="8.777025053121596"><ele>376.0</ele><time>2026-04-27T09:13:03.935Z</time></trkpt><trkpt lat="39.84216453973537" lon="8.776949170599472"><ele>376.0</ele><time>2026-04-27T09:13:05.935Z</time></trkpt><trkpt lat="39.842103556791216" lon="8.776899999492793"><ele>376.0</ele><time>2026-04-27T09:13:06.935Z</time></trkpt><trkpt lat="39.84204615877294" lon="8.776850896993114"><ele>376.0</ele><time>2026-04-27T09:13:07.935Z</time></trkpt><trkpt lat="39.84197811402965" lon="8.77680056287648"><ele>376.0</ele><time>2026-04-27T09:13:08.935Z</time></trkpt><trkpt lat="39.8418987105738" lon="8.776744261615711"><ele>376.0</ele><time>2026-04-27T09:13:09.935Z</time></trkpt><trkpt lat="39.84182663513304" lon="8.776683974893837"><ele>376.0</ele><time>2026-04-27T09:13:10.935Z</time></trkpt><trkpt lat="39.84175450803754" lon="8.776623235212384"><ele>376.66666666666663</ele><time>2026-04-27T09:13:11.935Z</time></trkpt><trkpt lat="39.84169265454576" lon="8.776557801025309"><ele>377.3333333333333</ele><time>2026-04-27T09:13:12.935Z</time></trkpt><trkpt lat="39.841635418611965" lon="8.776493232926494"><ele>378.0</ele><time>2026-04-27T09:13:13.934Z</time></trkpt><trkpt lat="39.84158201303508" lon="8.776426274965932"><ele>378.6666666666667</ele><time>2026-04-27T09:13:14.934Z</time></trkpt><trkpt lat="39.84152737142397" lon="8.776353378072427"><ele>379.33333333333337</ele><time>2026-04-27T09:13:15.934Z</time></trkpt><trkpt lat="39.84146911103118" lon="8.776289992131051"><ele>380.0</ele><time>2026-04-27T09:13:16.934Z</time></trkpt><trkpt lat="39.84140519986853" lon="8.776247328582013"><ele>380.0</ele><time>2026-04-27T09:13:17.934Z</time></trkpt><trkpt lat="39.84135032637341" lon="8.776193755099435"><ele>380.0</ele><time>2026-04-27T09:13:18.934Z</time></trkpt><trkpt lat="39.84126313820356" lon="8.77611370158185"><ele>380.0</ele><time>2026-04-27T09:13:20.934Z</time></trkpt><trkpt lat="39.8411879008754" lon="8.776060605696925"><ele>380.0</ele><time>2026-04-27T09:13:22.934Z</time></trkpt><trkpt lat="39.84112013811048" lon="8.776017160852925"><ele>380.0</ele><time>2026-04-27T09:13:24.934Z</time></trkpt><trkpt lat="39.84102024024504" lon="8.77597837889193"><ele>380.0</ele><time>2026-04-27T09:13:26.934Z</time></trkpt><trkpt lat="39.84091979811736" lon="8.775932580039969"><ele>380.1666666666667</ele><time>2026-04-27T09:13:28.934Z</time></trkpt><trkpt lat="39.840812839111166" lon="8.775901890936174"><ele>380.33333333333337</ele><time>2026-04-27T09:13:30.934Z</time></trkpt><trkpt lat="39.84073532039614" lon="8.775882743537561"><ele>380.5</ele><time>2026-04-27T09:13:31.934Z</time></trkpt><trkpt lat="39.8406558535421" lon="8.775867347614131"><ele>380.6666666666667</ele><time>2026-04-27T09:13:32.934Z</time></trkpt><trkpt lat="39.84056837351766" lon="8.775840892223997"><ele>380.8333333333333</ele><time>2026-04-27T09:13:33.934Z</time></trkpt><trkpt lat="39.84048537830009" lon="8.775815303919362"><ele>381.0</ele><time>2026-04-27T09:13:34.934Z</time></trkpt><trkpt lat="39.84039843868217" lon="8.775785639215204"><ele>381.0</ele><time>2026-04-27T09:13:35.934Z</time></trkpt><trkpt lat="39.840316121538926" lon="8.77575247612922"><ele>381.0</ele><time>2026-04-27T09:13:36.934Z</time></trkpt><trkpt lat="39.840229297514114" lon="8.775715230062207"><ele>381.0</ele><time>2026-04-27T09:13:37.934Z</time></trkpt><trkpt lat="39.840146550169585" lon="8.775674022504482"><ele>381.0</ele><time>2026-04-27T09:13:38.934Z</time></trkpt><trkpt lat="39.84006677102748" lon="8.775646400750235"><ele>381.0</ele><time>2026-04-27T09:13:39.934Z</time></trkpt><trkpt lat="39.839991168161355" lon="8.77562501997252"><ele>381.0</ele><time>2026-04-27T09:13:40.934Z</time></trkpt><trkpt lat="39.83990195352039" lon="8.775594303550216"><ele>382.2857142857143</ele><time>2026-04-27T09:13:41.934Z</time></trkpt><trkpt lat="39.83982471960918" lon="8.775572534688937"><ele>383.5714285714286</ele><time>2026-04-27T09:13:42.934Z</time></trkpt><trkpt lat="39.83975496243274" lon="8.775547301772857"><ele>384.8571428571429</ele><time>2026-04-27T09:13:43.934Z</time></trkpt><trkpt lat="39.83968652597514" lon="8.775534138570636"><ele>386.1428571428571</ele><time>2026-04-27T09:13:44.934Z</time></trkpt><trkpt lat="39.83961561321418" lon="8.775533327750114"><ele>387.42857142857144</ele><time>2026-04-27T09:13:45.934Z</time></trkpt><trkpt lat="39.83954610755602" lon="8.775549019979024"><ele>388.7142857142857</ele><time>2026-04-27T09:13:46.934Z</time></trkpt><trkpt lat="39.839472735942984" lon="8.775561682185058"><ele>390.0</ele><time>2026-04-27T09:13:47.934Z</time></trkpt><trkpt lat="39.83939636992544" lon="8.775552832331039"><ele>390.0</ele><time>2026-04-27T09:13:48.934Z</time></trkpt><trkpt lat="39.83932541527951" lon="8.775531700089058"><ele>390.0</ele><time>2026-04-27T09:13:49.934Z</time></trkpt><trkpt lat="39.83925690415562" lon="8.775532015687382"><ele>390.0</ele><time>2026-04-27T09:13:50.934Z</time></trkpt><trkpt lat="39.839158628996934" lon="8.775535632635645"><ele>390.0</ele><time>2026-04-27T09:13:52.934Z</time></trkpt><trkpt lat="39.839072604960386" lon="8.775624148255634"><ele>390.0</ele><time>2026-04-27T09:13:54.934Z</time></trkpt><trkpt lat="39.83897569882562" lon="8.775711176071136"><ele>391.1666666666667</ele><time>2026-04-27T09:13:56.934Z</time></trkpt><trkpt lat="39.83890389776521" lon="8.77580256794098"><ele>392.33333333333337</ele><time>2026-04-27T09:13:58.934Z</time></trkpt><trkpt lat="39.8388952106588" lon="8.77590723383177"><ele>393.5</ele><time>2026-04-27T09:14:00.934Z</time></trkpt><trkpt lat="39.83889254587166" lon="8.776001343251142"><ele>394.6666666666667</ele><time>2026-04-27T09:14:01.934Z</time></trkpt><trkpt lat="39.838891979245005" lon="8.776107079583316"><ele>395.83333333333337</ele><time>2026-04-27T09:14:02.934Z</time></trkpt><trkpt lat="39.83888931236807" lon="8.776218911678166"><ele>397.0</ele><time>2026-04-27T09:14:03.934Z</time></trkpt><trkpt lat="39.83888774632854" lon="8.776386961373822"><ele>397.00000000000006</ele><time>2026-04-27T09:14:05.934Z</time></trkpt><trkpt lat="39.83886205112729" lon="8.776486459835127"><ele>397.0</ele><time>2026-04-27T09:14:06.934Z</time></trkpt><trkpt lat="39.838811440743356" lon="8.776582084277466"><ele>397.0</ele><time>2026-04-27T09:14:07.934Z</time></trkpt><trkpt lat="39.83877003075349" lon="8.77668305742031"><ele>397.0</ele><time>2026-04-27T09:14:08.934Z</time></trkpt><trkpt lat="39.83873414012545" lon="8.776789751939594"><ele>397.00000000000006</ele><time>2026-04-27T09:14:09.934Z</time></trkpt><trkpt lat="39.83868508947101" lon="8.776888309822459"><ele>397.0</ele><time>2026-04-27T09:14:10.934Z</time></trkpt><trkpt lat="39.83864145549373" lon="8.777006240535965"><ele>396.1666666666667</ele><time>2026-04-27T09:14:11.934Z</time></trkpt><trkpt lat="39.83859875492532" lon="8.777109235672278"><ele>395.33333333333337</ele><time>2026-04-27T09:14:12.934Z</time></trkpt><trkpt lat="39.83854865367668" lon="8.777215730665427"><ele>394.5</ele><time>2026-04-27T09:14:13.934Z</time></trkpt><trkpt lat="39.838504557946585" lon="8.777297421893602"><ele>393.66666666666663</ele><time>2026-04-27T09:14:14.934Z</time></trkpt><trkpt lat="39.83845784058674" lon="8.777382805117036"><ele>392.8333333333333</ele><time>2026-04-27T09:14:15.934Z</time></trkpt><trkpt lat="39.83841622975888" lon="8.777461237304278"><ele>392.0</ele><time>2026-04-27T09:14:16.934Z</time></trkpt><trkpt lat="39.83838029879386" lon="8.77754880948005"><ele>394.75</ele><time>2026-04-27T09:14:17.934Z</time></trkpt><trkpt lat="39.838296600434695" lon="8.777648027926784"><ele>397.5</ele><time>2026-04-27T09:14:19.934Z</time></trkpt><trkpt lat="39.83818879385711" lon="8.777669862804318"><ele>400.25</ele><time>2026-04-27T09:14:21.934Z</time></trkpt><trkpt lat="39.838069272763285" lon="8.777667755167926"><ele>403.0</ele><time>2026-04-27T09:14:23.934Z</time></trkpt><trkpt lat="39.83795178930537" lon="8.777632709948758"><ele>403.0</ele><time>2026-04-27T09:14:25.934Z</time></trkpt><trkpt lat="39.83787757639802" lon="8.777618361920984"><ele>403.0</ele><time>2026-04-27T09:14:26.934Z</time></trkpt><trkpt lat="39.83780667259953" lon="8.777617176332969"><ele>403.0</ele><time>2026-04-27T09:14:27.934Z</time></trkpt><trkpt lat="39.83769112499896" lon="8.777639208232904"><ele>403.0</ele><time>2026-04-27T09:14:29.934Z</time></trkpt><trkpt lat="39.837561518455" lon="8.777673909807236"><ele>403.0</ele><time>2026-04-27T09:14:31.934Z</time></trkpt><trkpt lat="39.837489568516276" lon="8.77767658328157"><ele>404.6666666666667</ele><time>2026-04-27T09:14:32.934Z</time></trkpt><trkpt lat="39.837417956267075" lon="8.777676285610028"><ele>406.33333333333337</ele><time>2026-04-27T09:14:33.934Z</time></trkpt><trkpt lat="39.837339093384564" lon="8.777696441243464"><ele>408.0</ele><time>2026-04-27T09:14:34.934Z</time></trkpt><trkpt lat="39.837264341753006" lon="8.777709427747892"><ele>409.66666666666663</ele><time>2026-04-27T09:14:35.934Z</time></trkpt><trkpt lat="39.837138208641846" lon="8.777690875366334"><ele>411.3333333333333</ele><time>2026-04-27T09:14:37.934Z</time></trkpt><trkpt lat="39.83707120006586" lon="8.777696195274348"><ele>413.0</ele><time>2026-04-27T09:14:38.934Z</time></trkpt><trkpt lat="39.83699502072969" lon="8.777697726211777"><ele>412.99999999999994</ele><time>2026-04-27T09:14:39.934Z</time></trkpt><trkpt lat="39.836928323862026" lon="8.777695067242817"><ele>413.0</ele><time>2026-04-27T09:14:40.934Z</time></trkpt><trkpt lat="39.83681310278639" lon="8.777712759023434"><ele>413.0</ele><time>2026-04-27T09:14:42.934Z</time></trkpt><trkpt lat="39.83675530863969" lon="8.777776952998515"><ele>413.0</ele><time>2026-04-27T09:14:44.934Z</time></trkpt><trkpt lat="39.83675002434124" lon="8.777859502712438"><ele>412.99999999999994</ele><time>2026-04-27T09:14:46.934Z</time></trkpt><trkpt lat="39.836772347023604" lon="8.777959657800002"><ele>413.0</ele><time>2026-04-27T09:14:48.934Z</time></trkpt><trkpt lat="39.83678238005596" lon="8.778109588613951"><ele>412.99999999999994</ele><time>2026-04-27T09:14:50.934Z</time></trkpt><trkpt lat="39.836791499165194" lon="8.778254766407562"><ele>413.0</ele><time>2026-04-27T09:14:52.934Z</time></trkpt><trkpt lat="39.836851121843885" lon="8.778352434532998"><ele>413.0</ele><time>2026-04-27T09:14:55.934Z</time></trkpt><trkpt lat="39.83684752106004" lon="8.778437836431156"><ele>413.0</ele><time>2026-04-27T09:14:57.934Z</time></trkpt><trkpt lat="39.836768099702155" lon="8.778483779131133"><ele>412.99999999999994</ele><time>2026-04-27T09:15:00.933Z</time></trkpt><trkpt lat="39.8367005507181" lon="8.778472422476124"><ele>413.0</ele><time>2026-04-27T09:15:02.933Z</time></trkpt><trkpt lat="39.83663280776658" lon="8.778483106813397"><ele>414.49999999999994</ele><time>2026-04-27T09:15:04.934Z</time></trkpt><trkpt lat="39.83656354083575" lon="8.778499006057556"><ele>416.0</ele><time>2026-04-27T09:15:06.934Z</time></trkpt><trkpt lat="39.83650965641063" lon="8.778541692262467"><ele>417.5</ele><time>2026-04-27T09:15:08.934Z</time></trkpt><trkpt lat="39.83642698358538" lon="8.77859022194169"><ele>419.0</ele><time>2026-04-27T09:15:10.934Z</time></trkpt><trkpt lat="39.836342837900204" lon="8.778589225140115"><ele>420.49999999999994</ele><time>2026-04-27T09:15:12.933Z</time></trkpt><trkpt lat="39.836261808931674" lon="8.77856715856377"><ele>422.0</ele><time>2026-04-27T09:15:14.933Z</time></trkpt><trkpt lat="39.836180210927196" lon="8.778527963626122"><ele>423.6</ele><time>2026-04-27T09:15:16.933Z</time></trkpt><trkpt lat="39.8360746332727" lon="8.778522196939507"><ele>425.20000000000005</ele><time>2026-04-27T09:15:18.933Z</time></trkpt><trkpt lat="39.83596781525907" lon="8.778476156787878"><ele>426.8</ele><time>2026-04-27T09:15:20.933Z</time></trkpt><trkpt lat="39.83587284851999" lon="8.77843507185258"><ele>428.4</ele><time>2026-04-27T09:15:22.933Z</time></trkpt><trkpt lat="39.835779767980824" lon="8.778408526710596"><ele>430.0</ele><time>2026-04-27T09:15:24.933Z</time></trkpt><trkpt lat="39.835713952740306" lon="8.778418771259542"><ele>430.50000000000006</ele><time>2026-04-27T09:15:25.933Z</time></trkpt><trkpt lat="39.835654802713286" lon="8.778449954569675"><ele>431.0</ele><time>2026-04-27T09:15:26.933Z</time></trkpt><trkpt lat="39.835592673361425" lon="8.778495442614206"><ele>431.5</ele><time>2026-04-27T09:15:27.933Z</time></trkpt><trkpt lat="39.835474458233406" lon="8.778536304682131"><ele>432.0</ele><time>2026-04-27T09:15:29.933Z</time></trkpt><trkpt lat="39.83540834479483" lon="8.778542415138045"><ele>432.50000000000006</ele><time>2026-04-27T09:15:30.933Z</time></trkpt><trkpt lat="39.83534262973607" lon="8.778575459088458"><ele>433.0</ele><time>2026-04-27T09:15:31.933Z</time></trkpt><trkpt lat="39.8352910896611" lon="8.77864227883543"><ele>433.50000000000006</ele><time>2026-04-27T09:15:32.933Z</time></trkpt><trkpt lat="39.83524910347078" lon="8.778714203550258"><ele>434.0</ele><time>2026-04-27T09:15:33.933Z</time></trkpt><trkpt lat="39.83520975454226" lon="8.778781991533666"><ele>434.5</ele><time>2026-04-27T09:15:34.933Z</time></trkpt><trkpt lat="39.83517942171877" lon="8.778868273090785"><ele>435.0</ele><time>2026-04-27T09:15:35.933Z</time></trkpt><trkpt lat="39.835139860216415" lon="8.779044936576398"><ele>435.50000000000006</ele><time>2026-04-27T09:15:37.933Z</time></trkpt><trkpt lat="39.835142152499635" lon="8.779148684924083"><ele>436.0</ele><time>2026-04-27T09:15:38.933Z</time></trkpt><trkpt lat="39.83514893670848" lon="8.779280255083515"><ele>436.1666666666667</ele><time>2026-04-27T09:15:39.933Z</time></trkpt><trkpt lat="39.835164883884715" lon="8.77940971948474"><ele>436.33333333333337</ele><time>2026-04-27T09:15:40.933Z</time></trkpt><trkpt lat="39.83519414452192" lon="8.779514023124543"><ele>436.5</ele><time>2026-04-27T09:15:41.933Z</time></trkpt><trkpt lat="39.8352208750418" lon="8.77960175445846"><ele>436.66666666666663</ele><time>2026-04-27T09:15:42.933Z</time></trkpt><trkpt lat="39.83521686730123" lon="8.779746017868698"><ele>436.8333333333333</ele><time>2026-04-27T09:15:44.933Z</time></trkpt><trkpt lat="39.83518594876269" lon="8.779832242662962"><ele>437.0</ele><time>2026-04-27T09:15:45.933Z</time></trkpt><trkpt lat="39.83514090159549" lon="8.779939884545106"><ele>438.40000000000003</ele><time>2026-04-27T09:15:46.933Z</time></trkpt><trkpt lat="39.83509016548521" lon="8.780052932215746"><ele>439.80000000000007</ele><time>2026-04-27T09:15:47.933Z</time></trkpt><trkpt lat="39.835049341420365" lon="8.780170788862298"><ele>441.2</ele><time>2026-04-27T09:15:48.933Z</time></trkpt><trkpt lat="39.83501731852953" lon="8.780297669698387"><ele>442.6</ele><time>2026-04-27T09:15:49.933Z</time></trkpt><trkpt lat="39.834997915554226" lon="8.780418872149243"><ele>444.0</ele><time>2026-04-27T09:15:50.933Z</time></trkpt><trkpt lat="39.83498833845972" lon="8.78054677071671"><ele>444.0</ele><time>2026-04-27T09:15:51.933Z</time></trkpt><trkpt lat="39.834979355333935" lon="8.780682710132085"><ele>444.0</ele><time>2026-04-27T09:15:52.933Z</time></trkpt><trkpt lat="39.83494488191151" lon="8.780806537251406"><ele>444.0</ele><time>2026-04-27T09:15:53.933Z</time></trkpt><trkpt lat="39.834912647132406" lon="8.780935688892272"><ele>444.0</ele><time>2026-04-27T09:15:54.933Z</time></trkpt><trkpt lat="39.83489298507913" lon="8.78108028938046"><ele>444.0</ele><time>2026-04-27T09:15:55.933Z</time></trkpt><trkpt lat="39.83487929186139" lon="8.781218816159864"><ele>443.8333333333333</ele><time>2026-04-27T09:15:56.933Z</time></trkpt><trkpt lat="39.83486907569148" lon="8.781352718942513"><ele>443.66666666666663</ele><time>2026-04-27T09:15:57.933Z</time></trkpt><trkpt lat="39.8348666064267" lon="8.781454374290503"><ele>443.5</ele><time>2026-04-27T09:15:58.933Z</time></trkpt><trkpt lat="39.834861624568084" lon="8.781559622707535"><ele>443.3333333333333</ele><time>2026-04-27T09:15:59.933Z</time></trkpt><trkpt lat="39.83485312103111" lon="8.781676849334001"><ele>443.16666666666663</ele><time>2026-04-27T09:16:00.933Z</time></trkpt><trkpt lat="39.83484504539967" lon="8.781789022159941"><ele>443.0</ele><time>2026-04-27T09:16:01.933Z</time></trkpt><trkpt lat="39.83484263828326" lon="8.781898607813233"><ele>442.79999999999995</ele><time>2026-04-27T09:16:02.933Z</time></trkpt><trkpt lat="39.834842703070784" lon="8.782029473976086"><ele>442.59999999999997</ele><time>2026-04-27T09:16:03.933Z</time></trkpt><trkpt lat="39.83484162437308" lon="8.78215646006967"><ele>442.40000000000003</ele><time>2026-04-27T09:16:04.933Z</time></trkpt><trkpt lat="39.83484148509626" lon="8.782261689231483"><ele>442.20000000000005</ele><time>2026-04-27T09:16:05.933Z</time></trkpt><trkpt lat="39.83483439228844" lon="8.782367597581002"><ele>442.0</ele><time>2026-04-27T09:16:06.933Z</time></trkpt><trkpt lat="39.834817069269114" lon="8.782494733191433"><ele>442.00000000000006</ele><time>2026-04-27T09:16:07.933Z</time></trkpt><trkpt lat="39.83481251359167" lon="8.782626887739163"><ele>442.0</ele><time>2026-04-27T09:16:08.933Z</time></trkpt><trkpt lat="39.834810194398315" lon="8.78273392845594"><ele>442.0</ele><time>2026-04-27T09:16:09.933Z</time></trkpt><trkpt lat="39.834806788796804" lon="8.782817052377776"><ele>442.0</ele><time>2026-04-27T09:16:10.933Z</time></trkpt><trkpt lat="39.834802509540225" lon="8.782904695193887"><ele>442.00000000000006</ele><time>2026-04-27T09:16:11.933Z</time></trkpt><trkpt lat="39.83477835090469" lon="8.783043772927284"><ele>442.0</ele><time>2026-04-27T09:16:13.933Z</time></trkpt><trkpt lat="39.83473069518222" lon="8.783160262424587"><ele>441.83333333333337</ele><time>2026-04-27T09:16:15.933Z</time></trkpt><trkpt lat="39.83461573939318" lon="8.783204870033549"><ele>441.6666666666667</ele><time>2026-04-27T09:16:17.933Z</time></trkpt><trkpt lat="39.834543300053305" lon="8.783198590607507"><ele>441.5</ele><time>2026-04-27T09:16:18.933Z</time></trkpt><trkpt lat="39.834468037789115" lon="8.783179959654845"><ele>441.33333333333337</ele><time>2026-04-27T09:16:19.933Z</time></trkpt><trkpt lat="39.8343859957863" lon="8.78315455879685"><ele>441.1666666666667</ele><time>2026-04-27T09:16:20.933Z</time></trkpt><trkpt lat="39.83429633074617" lon="8.783131951659549"><ele>441.0</ele><time>2026-04-27T09:16:21.933Z</time></trkpt><trkpt lat="39.834209649491164" lon="8.783107121711259"><ele>441.0</ele><time>2026-04-27T09:16:22.933Z</time></trkpt><trkpt lat="39.83412275602474" lon="8.783080090937496"><ele>441.0</ele><time>2026-04-27T09:16:23.933Z</time></trkpt><trkpt lat="39.834034365488954" lon="8.78306216806119"><ele>441.0</ele><time>2026-04-27T09:16:24.933Z</time></trkpt><trkpt lat="39.83394575351922" lon="8.783043162857638"><ele>441.0</ele><time>2026-04-27T09:16:25.933Z</time></trkpt><trkpt lat="39.83385379158057" lon="8.783032609302568"><ele>441.0</ele><time>2026-04-27T09:16:26.933Z</time></trkpt><trkpt lat="39.833762397240385" lon="8.783027028528604"><ele>441.0</ele><time>2026-04-27T09:16:27.933Z</time></trkpt><trkpt lat="39.83366744045594" lon="8.783014596673526"><ele>441.0</ele><time>2026-04-27T09:16:28.933Z</time></trkpt><trkpt lat="39.83358086989204" lon="8.782992974836185"><ele>441.0</ele><time>2026-04-27T09:16:29.933Z</time></trkpt><trkpt lat="39.833487094988946" lon="8.782973898959135"><ele>441.0</ele><time>2026-04-27T09:16:30.933Z</time></trkpt><trkpt lat="39.83338657475247" lon="8.782945058339335"><ele>441.0</ele><time>2026-04-27T09:16:31.933Z</time></trkpt><trkpt lat="39.83328625642936" lon="8.782910739053797"><ele>441.8</ele><time>2026-04-27T09:16:32.933Z</time></trkpt><trkpt lat="39.83318113436079" lon="8.78287206803195"><ele>442.6</ele><time>2026-04-27T09:16:33.933Z</time></trkpt><trkpt lat="39.833092996351915" lon="8.782888235881185"><ele>443.4</ele><time>2026-04-27T09:16:34.933Z</time></trkpt><trkpt lat="39.83294651018802" lon="8.78291582728226"><ele>444.2</ele><time>2026-04-27T09:16:36.933Z</time></trkpt><trkpt lat="39.83284653721387" lon="8.782937824267192"><ele>445.0</ele><time>2026-04-27T09:16:37.933Z</time></trkpt><trkpt lat="39.83274171392166" lon="8.782928810828944"><ele>445.0</ele><time>2026-04-27T09:16:38.933Z</time></trkpt><trkpt lat="39.83264101855406" lon="8.782909069811236"><ele>445.0</ele><time>2026-04-27T09:16:39.933Z</time></trkpt><trkpt lat="39.83253545042852" lon="8.782867375427884"><ele>445.0</ele><time>2026-04-27T09:16:40.933Z</time></trkpt><trkpt lat="39.83244298392819" lon="8.782828053063703"><ele>445.0</ele><time>2026-04-27T09:16:41.933Z</time></trkpt><trkpt lat="39.83236469521131" lon="8.782775016935027"><ele>445.0</ele><time>2026-04-27T09:16:42.933Z</time></trkpt><trkpt lat="39.832303981996034" lon="8.782696239340817"><ele>446.2</ele><time>2026-04-27T09:16:43.933Z</time></trkpt><trkpt lat="39.83223248892803" lon="8.782624782147845"><ele>447.4</ele><time>2026-04-27T09:16:44.933Z</time></trkpt><trkpt lat="39.83214829802264" lon="8.7825547680466"><ele>448.6</ele><time>2026-04-27T09:16:45.933Z</time></trkpt><trkpt lat="39.83206799718781" lon="8.782498527747238"><ele>449.8</ele><time>2026-04-27T09:16:46.933Z</time></trkpt><trkpt lat="39.83198758404668" lon="8.782450524158142"><ele>451.0</ele><time>2026-04-27T09:16:47.933Z</time></trkpt><trkpt lat="39.831901414588245" lon="8.78239676395237"><ele>451.00000000000006</ele><time>2026-04-27T09:16:49.933Z</time></trkpt><trkpt lat="39.83184222885274" lon="8.782328942080497"><ele>451.0</ele><time>2026-04-27T09:16:51.933Z</time></trkpt><trkpt lat="39.83177164560199" lon="8.782280233855825"><ele>451.0</ele><time>2026-04-27T09:16:53.933Z</time></trkpt><trkpt lat="39.8316820951985" lon="8.782296997906696"><ele>451.0</ele><time>2026-04-27T09:16:56.933Z</time></trkpt><trkpt lat="39.831565271648266" lon="8.782314268912877"><ele>451.00000000000006</ele><time>2026-04-27T09:16:58.933Z</time></trkpt><trkpt lat="39.83149187660619" lon="8.782325566753132"><ele>451.0</ele><time>2026-04-27T09:16:59.933Z</time></trkpt><trkpt lat="39.83140717763019" lon="8.782326357794178"><ele>450.8</ele><time>2026-04-27T09:17:00.933Z</time></trkpt><trkpt lat="39.83131669223677" lon="8.782316838324133"><ele>450.6</ele><time>2026-04-27T09:17:01.933Z</time></trkpt><trkpt lat="39.83122444860131" lon="8.782315256414515"><ele>450.4</ele><time>2026-04-27T09:17:02.933Z</time></trkpt><trkpt lat="39.83112436895917" lon="8.782313979306196"><ele>450.2</ele><time>2026-04-27T09:17:03.933Z</time></trkpt><trkpt lat="39.831028401917834" lon="8.782321622610876"><ele>450.0</ele><time>2026-04-27T09:17:04.933Z</time></trkpt><trkpt lat="39.830929530915874" lon="8.782348376748287"><ele>450.3333333333333</ele><time>2026-04-27T09:17:05.933Z</time></trkpt><trkpt lat="39.83084123168315" lon="8.782390581007139"><ele>450.66666666666663</ele><time>2026-04-27T09:17:06.932Z</time></trkpt><trkpt lat="39.83077001486821" lon="8.782432806816407"><ele>451.0</ele><time>2026-04-27T09:17:07.932Z</time></trkpt><trkpt lat="39.830695197615" lon="8.78248065070595"><ele>451.3333333333333</ele><time>2026-04-27T09:17:08.932Z</time></trkpt><trkpt lat="39.830623444897796" lon="8.782522522597784"><ele>451.66666666666663</ele><time>2026-04-27T09:17:09.932Z</time></trkpt><trkpt lat="39.83053484992045" lon="8.782556823853746"><ele>452.0</ele><time>2026-04-27T09:17:10.932Z</time></trkpt><trkpt lat="39.830448810428344" lon="8.782581858453986"><ele>451.99999999999994</ele><time>2026-04-27T09:17:11.932Z</time></trkpt><trkpt lat="39.83036934656637" lon="8.782608687437275"><ele>452.0</ele><time>2026-04-27T09:17:12.932Z</time></trkpt><trkpt lat="39.8302999864845" lon="8.78263826805065"><ele>452.0</ele><time>2026-04-27T09:17:13.931Z</time></trkpt><trkpt lat="39.83022086538031" lon="8.782669648522733"><ele>452.0</ele><time>2026-04-27T09:17:14.931Z</time></trkpt><trkpt lat="39.83015837699956" lon="8.782706873585912"><ele>451.99999999999994</ele><time>2026-04-27T09:17:15.932Z</time></trkpt><trkpt lat="39.83010510008211" lon="8.782759035518342"><ele>452.0</ele><time>2026-04-27T09:17:16.932Z</time></trkpt><trkpt lat="39.83004511961196" lon="8.782841080569701"><ele>452.99999999999994</ele><time>2026-04-27T09:17:17.932Z</time></trkpt><trkpt lat="39.8299867669907" lon="8.78290961136249"><ele>454.0</ele><time>2026-04-27T09:17:18.931Z</time></trkpt><trkpt lat="39.82991952821364" lon="8.78297423812918"><ele>455.0</ele><time>2026-04-27T09:17:19.932Z</time></trkpt><trkpt lat="39.82985467150798" lon="8.78304777711044"><ele>456.0</ele><time>2026-04-27T09:17:20.932Z</time></trkpt><trkpt lat="39.82978869920947" lon="8.783125364972175"><ele>456.99999999999994</ele><time>2026-04-27T09:17:21.932Z</time></trkpt><trkpt lat="39.829735684216566" lon="8.783215481225282"><ele>458.0</ele><time>2026-04-27T09:17:22.932Z</time></trkpt><trkpt lat="39.82968197532498" lon="8.783314304317388"><ele>457.99999999999994</ele><time>2026-04-27T09:17:23.932Z</time></trkpt><trkpt lat="39.82963986510439" lon="8.78338097245912"><ele>458.0</ele><time>2026-04-27T09:17:24.932Z</time></trkpt><trkpt lat="39.829571544294566" lon="8.783466154693688"><ele>458.0</ele><time>2026-04-27T09:17:25.932Z</time></trkpt><trkpt lat="39.8295085412647" lon="8.783539016294784"><ele>458.0</ele><time>2026-04-27T09:17:26.932Z</time></trkpt><trkpt lat="39.829442127749225" lon="8.783613169163882"><ele>457.99999999999994</ele><time>2026-04-27T09:17:27.932Z</time></trkpt><trkpt lat="39.82936503276237" lon="8.783672609005825"><ele>458.0</ele><time>2026-04-27T09:17:28.932Z</time></trkpt><trkpt lat="39.82928980032002" lon="8.783718651191164"><ele>458.49999999999994</ele><time>2026-04-27T09:17:29.932Z</time></trkpt><trkpt lat="39.829218960510865" lon="8.783744415532581"><ele>459.0</ele><time>2026-04-27T09:17:30.932Z</time></trkpt><trkpt lat="39.82913283932544" lon="8.783777116917534"><ele>459.5</ele><time>2026-04-27T09:17:31.932Z</time></trkpt><trkpt lat="39.82904637902044" lon="8.783812955342722"><ele>460.0</ele><time>2026-04-27T09:17:32.932Z</time></trkpt><trkpt lat="39.828962912948285" lon="8.78385383920341"><ele>460.49999999999994</ele><time>2026-04-27T09:17:33.932Z</time></trkpt><trkpt lat="39.82888070867793" lon="8.783884811633381"><ele>461.0</ele><time>2026-04-27T09:17:34.932Z</time></trkpt><trkpt lat="39.82879142813833" lon="8.783904444795638"><ele>461.0</ele><time>2026-04-27T09:17:35.932Z</time></trkpt><trkpt lat="39.828697186434795" lon="8.783923988099565"><ele>461.0</ele><time>2026-04-27T09:17:36.932Z</time></trkpt><trkpt lat="39.82860778895429" lon="8.78394274063431"><ele>461.0</ele><time>2026-04-27T09:17:37.932Z</time></trkpt><trkpt lat="39.82851073390151" lon="8.783961006535385"><ele>461.0</ele><time>2026-04-27T09:17:38.932Z</time></trkpt><trkpt lat="39.828414760673034" lon="8.783979917961389"><ele>461.0</ele><time>2026-04-27T09:17:39.932Z</time></trkpt><trkpt lat="39.82832044573657" lon="8.78399352497895"><ele>461.4</ele><time>2026-04-27T09:17:40.932Z</time></trkpt><trkpt lat="39.82822405067043" lon="8.78400086366679"><ele>461.8</ele><time>2026-04-27T09:17:41.932Z</time></trkpt><trkpt lat="39.82812685692812" lon="8.784019948047177"><ele>462.19999999999993</ele><time>2026-04-27T09:17:42.932Z</time></trkpt><trkpt lat="39.82803543089207" lon="8.784034542627555"><ele>462.59999999999997</ele><time>2026-04-27T09:17:43.932Z</time></trkpt><trkpt lat="39.82793973341227" lon="8.784051223090701"><ele>463.0</ele><time>2026-04-27T09:17:44.932Z</time></trkpt><trkpt lat="39.82784798482643" lon="8.784062871803785"><ele>463.0</ele><time>2026-04-27T09:17:45.932Z</time></trkpt><trkpt lat="39.82776129643478" lon="8.784084788997347"><ele>462.99999999999994</ele><time>2026-04-27T09:17:46.932Z</time></trkpt><trkpt lat="39.82767059144299" lon="8.784097989188629"><ele>462.99999999999994</ele><time>2026-04-27T09:17:47.932Z</time></trkpt><trkpt lat="39.82758550034773" lon="8.784113342474694"><ele>463.0</ele><time>2026-04-27T09:17:48.932Z</time></trkpt><trkpt lat="39.82748933002756" lon="8.784135749675228"><ele>463.0</ele><time>2026-04-27T09:17:49.932Z</time></trkpt><trkpt lat="39.827406759662686" lon="8.784171870846416"><ele>463.59999999999997</ele><time>2026-04-27T09:17:50.932Z</time></trkpt><trkpt lat="39.827315839300276" lon="8.784223776701102"><ele>464.19999999999993</ele><time>2026-04-27T09:17:51.932Z</time></trkpt><trkpt lat="39.82723010584134" lon="8.78427033052438"><ele>464.8</ele><time>2026-04-27T09:17:52.932Z</time></trkpt><trkpt lat="39.82713945677278" lon="8.784307521932211"><ele>465.4</ele><time>2026-04-27T09:17:53.932Z</time></trkpt><trkpt lat="39.82704351311256" lon="8.784346984780225"><ele>466.0</ele><time>2026-04-27T09:17:54.932Z</time></trkpt><trkpt lat="39.82694728047621" lon="8.784393821596144"><ele>466.0</ele><time>2026-04-27T09:17:55.932Z</time></trkpt><trkpt lat="39.82686574351746" lon="8.7844410617833"><ele>466.0</ele><time>2026-04-27T09:17:56.932Z</time></trkpt><trkpt lat="39.826771035855806" lon="8.78448295465463"><ele>466.0</ele><time>2026-04-27T09:17:57.932Z</time></trkpt><trkpt lat="39.826669751571806" lon="8.784513983959771"><ele>466.0</ele><time>2026-04-27T09:17:58.932Z</time></trkpt><trkpt lat="39.826560238270496" lon="8.784562219882375"><ele>466.0</ele><time>2026-04-27T09:17:59.932Z</time></trkpt><trkpt lat="39.82645715930118" lon="8.784602385141767"><ele>466.6</ele><time>2026-04-27T09:18:00.932Z</time></trkpt><trkpt lat="39.82635783014415" lon="8.784657498870617"><ele>467.20000000000005</ele><time>2026-04-27T09:18:01.932Z</time></trkpt><trkpt lat="39.826269762475874" lon="8.784704395987482"><ele>467.79999999999995</ele><time>2026-04-27T09:18:02.932Z</time></trkpt><trkpt lat="39.82618464743754" lon="8.784731953645831"><ele>468.4</ele><time>2026-04-27T09:18:03.932Z</time></trkpt><trkpt lat="39.826094052273795" lon="8.784750732730785"><ele>469.0</ele><time>2026-04-27T09:18:04.932Z</time></trkpt><trkpt lat="39.826010793402865" lon="8.784772765557173"><ele>469.4</ele><time>2026-04-27T09:18:05.932Z</time></trkpt><trkpt lat="39.825912076273454" lon="8.784798473402153"><ele>469.79999999999995</ele><time>2026-04-27T09:18:06.932Z</time></trkpt><trkpt lat="39.825808999527844" lon="8.784827006775254"><ele>470.20000000000005</ele><time>2026-04-27T09:18:07.932Z</time></trkpt><trkpt lat="39.82570400187174" lon="8.784858888272264"><ele>470.6</ele><time>2026-04-27T09:18:08.932Z</time></trkpt><trkpt lat="39.82560186635856" lon="8.784877913973254"><ele>471.0</ele><time>2026-04-27T09:18:09.932Z</time></trkpt><trkpt lat="39.82550535128116" lon="8.784875161930154"><ele>471.0</ele><time>2026-04-27T09:18:10.932Z</time></trkpt><trkpt lat="39.82540205538024" lon="8.784850569597202"><ele>471.0</ele><time>2026-04-27T09:18:11.932Z</time></trkpt><trkpt lat="39.82530529892556" lon="8.784809736664279"><ele>471.0</ele><time>2026-04-27T09:18:12.932Z</time></trkpt><trkpt lat="39.825207901386804" lon="8.784779422539646"><ele>471.0</ele><time>2026-04-27T09:18:13.932Z</time></trkpt><trkpt lat="39.825110527267775" lon="8.784756325053078"><ele>471.0</ele><time>2026-04-27T09:18:14.932Z</time></trkpt><trkpt lat="39.82502066088627" lon="8.784722524741904"><ele>471.20000000000005</ele><time>2026-04-27T09:18:15.932Z</time></trkpt><trkpt lat="39.82493141348853" lon="8.784698436251434"><ele>471.40000000000003</ele><time>2026-04-27T09:18:16.932Z</time></trkpt><trkpt lat="39.82483466435759" lon="8.784657674798757"><ele>471.6</ele><time>2026-04-27T09:18:17.932Z</time></trkpt><trkpt lat="39.82473288219976" lon="8.784600811104335"><ele>471.8</ele><time>2026-04-27T09:18:18.932Z</time></trkpt><trkpt lat="39.82464126220954" lon="8.784520091625174"><ele>472.0</ele><time>2026-04-27T09:18:19.932Z</time></trkpt><trkpt lat="39.82456407226388" lon="8.784447629659448"><ele>472.0</ele><time>2026-04-27T09:18:20.932Z</time></trkpt><trkpt lat="39.82447579763689" lon="8.78437681347234"><ele>472.00000000000006</ele><time>2026-04-27T09:18:21.932Z</time></trkpt><trkpt lat="39.824391392996034" lon="8.784304127544369"><ele>472.00000000000006</ele><time>2026-04-27T09:18:22.932Z</time></trkpt><trkpt lat="39.82431888431492" lon="8.784222882784656"><ele>472.0</ele><time>2026-04-27T09:18:23.932Z</time></trkpt><trkpt lat="39.824245911530994" lon="8.784142568744738"><ele>472.0</ele><time>2026-04-27T09:18:24.932Z</time></trkpt><trkpt lat="39.82417108472572" lon="8.784041669013842"><ele>473.0</ele><time>2026-04-27T09:18:25.932Z</time></trkpt><trkpt lat="39.82410938269122" lon="8.783932498137752"><ele>474.00000000000006</ele><time>2026-04-27T09:18:26.932Z</time></trkpt><trkpt lat="39.824040617633486" lon="8.783831800043236"><ele>475.00000000000006</ele><time>2026-04-27T09:18:27.932Z</time></trkpt><trkpt lat="39.82397465040557" lon="8.783735967523267"><ele>476.0</ele><time>2026-04-27T09:18:28.932Z</time></trkpt><trkpt lat="39.82391228076985" lon="8.78363157055827"><ele>477.0</ele><time>2026-04-27T09:18:29.932Z</time></trkpt><trkpt lat="39.823870970722375" lon="8.78355189155469"><ele>477.5</ele><time>2026-04-27T09:18:30.932Z</time></trkpt><trkpt lat="39.82382719405662" lon="8.783448767924638"><ele>478.0</ele><time>2026-04-27T09:18:31.932Z</time></trkpt><trkpt lat="39.82378719909403" lon="8.783355156223779"><ele>478.5</ele><time>2026-04-27T09:18:32.932Z</time></trkpt><trkpt lat="39.82373631534733" lon="8.783259055105933"><ele>479.0</ele><time>2026-04-27T09:18:33.932Z</time></trkpt><trkpt lat="39.82367783962066" lon="8.783180403795383"><ele>479.5</ele><time>2026-04-27T09:18:34.932Z</time></trkpt><trkpt lat="39.8236094849614" lon="8.78310136256867"><ele>480.0</ele><time>2026-04-27T09:18:35.932Z</time></trkpt><trkpt lat="39.823530286962544" lon="8.783032174105022"><ele>480.2</ele><time>2026-04-27T09:18:36.932Z</time></trkpt><trkpt lat="39.823449578439856" lon="8.782966698569435"><ele>480.4</ele><time>2026-04-27T09:18:37.932Z</time></trkpt><trkpt lat="39.82336121287595" lon="8.782901704890415"><ele>480.6</ele><time>2026-04-27T09:18:38.932Z</time></trkpt><trkpt lat="39.823265639507106" lon="8.78284538895773"><ele>480.8</ele><time>2026-04-27T09:18:39.932Z</time></trkpt><trkpt lat="39.82316660447292" lon="8.78281081854516"><ele>481.0</ele><time>2026-04-27T09:18:40.932Z</time></trkpt><trkpt lat="39.82306874413821" lon="8.782783171707445"><ele>481.0</ele><time>2026-04-27T09:18:41.932Z</time></trkpt><trkpt lat="39.82296157414412" lon="8.78277379979598"><ele>481.0</ele><time>2026-04-27T09:18:42.932Z</time></trkpt><trkpt lat="39.82286743503346" lon="8.782749941343901"><ele>481.0</ele><time>2026-04-27T09:18:43.932Z</time></trkpt><trkpt lat="39.822773825372465" lon="8.782725188861416"><ele>481.0</ele><time>2026-04-27T09:18:44.931Z</time></trkpt><trkpt lat="39.82268581096047" lon="8.782706679222727"><ele>481.0</ele><time>2026-04-27T09:18:45.931Z</time></trkpt><trkpt lat="39.82260716613145" lon="8.782694031381386"><ele>481.6</ele><time>2026-04-27T09:18:46.931Z</time></trkpt><trkpt lat="39.82250276783943" lon="8.782625263476026"><ele>482.20000000000005</ele><time>2026-04-27T09:18:48.931Z</time></trkpt><trkpt lat="39.82246938893849" lon="8.782524949704896"><ele>482.79999999999995</ele><time>2026-04-27T09:18:50.931Z</time></trkpt><trkpt lat="39.82249944943524" lon="8.782392928293302"><ele>483.4</ele><time>2026-04-27T09:18:52.931Z</time></trkpt><trkpt lat="39.82253994797369" lon="8.78230982303229"><ele>484.0</ele><time>2026-04-27T09:18:53.931Z</time></trkpt><trkpt lat="39.8225775413721" lon="8.782221674914194"><ele>484.4</ele><time>2026-04-27T09:18:54.931Z</time></trkpt><trkpt lat="39.82266092719564" lon="8.782089385090835"><ele>484.79999999999995</ele><time>2026-04-27T09:18:56.931Z</time></trkpt><trkpt lat="39.82270238462457" lon="8.782010415957547"><ele>485.20000000000005</ele><time>2026-04-27T09:18:57.931Z</time></trkpt><trkpt lat="39.82275017771013" lon="8.781923065105305"><ele>485.6</ele><time>2026-04-27T09:18:58.931Z</time></trkpt><trkpt lat="39.82281288149981" lon="8.781815259045999"><ele>486.0</ele><time>2026-04-27T09:18:59.931Z</time></trkpt><trkpt lat="39.82286419744942" lon="8.78172817254801"><ele>487.4</ele><time>2026-04-27T09:19:00.931Z</time></trkpt><trkpt lat="39.82293229225436" lon="8.78159437819543"><ele>488.8</ele><time>2026-04-27T09:19:02.929Z</time></trkpt><trkpt lat="39.82298866588037" lon="8.781482026179788"><ele>490.19999999999993</ele><time>2026-04-27T09:19:03.927Z</time></trkpt><trkpt lat="39.823053934931366" lon="8.781371429852612"><ele>491.59999999999997</ele><time>2026-04-27T09:19:04.925Z</time></trkpt><trkpt lat="39.82311137294481" lon="8.78125870793706"><ele>493.0</ele><time>2026-04-27T09:19:05.923Z</time></trkpt><trkpt lat="39.82318064325453" lon="8.781127316732121"><ele>495.0</ele><time>2026-04-27T09:19:06.921Z</time></trkpt><trkpt lat="39.823259446652536" lon="8.780988644268776"><ele>497.0</ele><time>2026-04-27T09:19:07.919Z</time></trkpt><trkpt lat="39.823338484428405" lon="8.780856245974205"><ele>499.0</ele><time>2026-04-27T09:19:08.917Z</time></trkpt><trkpt lat="39.82343138084076" lon="8.78071554074266"><ele>501.0</ele><time>2026-04-27T09:19:10.914Z</time></trkpt><trkpt lat="39.82348503325643" lon="8.780610735706222"><ele>501.6</ele><time>2026-04-27T09:19:11.913Z</time></trkpt><trkpt lat="39.82354788970351" lon="8.780531871723655"><ele>502.20000000000005</ele><time>2026-04-27T09:19:12.91Z</time></trkpt><trkpt lat="39.823598258394405" lon="8.780453453952202"><ele>502.79999999999995</ele><time>2026-04-27T09:19:13.909Z</time></trkpt><trkpt lat="39.823636110380434" lon="8.780290559381351"><ele>503.4</ele><time>2026-04-27T09:19:15.907Z</time></trkpt><trkpt lat="39.82364339157885" lon="8.780193555478554"><ele>504.0</ele><time>2026-04-27T09:19:16.906Z</time></trkpt><trkpt lat="39.82364023086766" lon="8.7800885131235"><ele>504.6</ele><time>2026-04-27T09:19:17.905Z</time></trkpt><trkpt lat="39.82365725293972" lon="8.779980809713235"><ele>505.2</ele><time>2026-04-27T09:19:18.904Z</time></trkpt><trkpt lat="39.82367508172027" lon="8.77987618052828"><ele>505.80000000000007</ele><time>2026-04-27T09:19:19.903Z</time></trkpt><trkpt lat="39.82369483498257" lon="8.77975569994218"><ele>506.40000000000003</ele><time>2026-04-27T09:19:20.902Z</time></trkpt><trkpt lat="39.823711196842346" lon="8.779637941388994"><ele>507.0</ele><time>2026-04-27T09:19:21.901Z</time></trkpt><trkpt lat="39.82372136316895" lon="8.779507480404064"><ele>507.0</ele><time>2026-04-27T09:19:22.9Z</time></trkpt><trkpt lat="39.82372117654228" lon="8.779384039372742"><ele>507.00000000000006</ele><time>2026-04-27T09:19:23.9Z</time></trkpt><trkpt lat="39.82370553004473" lon="8.77925952265984"><ele>507.00000000000006</ele><time>2026-04-27T09:19:24.9Z</time></trkpt><trkpt lat="39.82367539983569" lon="8.779145437769321"><ele>507.0</ele><time>2026-04-27T09:19:25.899Z</time></trkpt><trkpt lat="39.82362985252543" lon="8.77902014757516"><ele>507.0</ele><time>2026-04-27T09:19:26.899Z</time></trkpt><trkpt lat="39.823567195486135" lon="8.778910576392013"><ele>507.8</ele><time>2026-04-27T09:19:27.898Z</time></trkpt><trkpt lat="39.82350837719579" lon="8.77881300652101"><ele>508.6</ele><time>2026-04-27T09:19:28.898Z</time></trkpt><trkpt lat="39.823460920038634" lon="8.778696027620247"><ele>509.40000000000003</ele><time>2026-04-27T09:19:29.897Z</time></trkpt><trkpt lat="39.82341483295122" lon="8.778586125223642"><ele>510.20000000000005</ele><time>2026-04-27T09:19:30.897Z</time></trkpt><trkpt lat="39.82337079440178" lon="8.778476869062919"><ele>511.0</ele><time>2026-04-27T09:19:31.896Z</time></trkpt><trkpt lat="39.82333428545167" lon="8.778382870165395"><ele>512.6</ele><time>2026-04-27T09:19:32.896Z</time></trkpt><trkpt lat="39.823299843835144" lon="8.77826439442302"><ele>514.2</ele><time>2026-04-27T09:19:33.896Z</time></trkpt><trkpt lat="39.823243508301424" lon="8.778147092762472"><ele>515.8</ele><time>2026-04-27T09:19:34.895Z</time></trkpt><trkpt lat="39.82319190890268" lon="8.778023248802521"><ele>517.4</ele><time>2026-04-27T09:19:35.895Z</time></trkpt><trkpt lat="39.823149518589055" lon="8.777902907582817"><ele>519.0</ele><time>2026-04-27T09:19:36.895Z</time></trkpt><trkpt lat="39.82310304422801" lon="8.777777241132034"><ele>519.6</ele><time>2026-04-27T09:19:37.894Z</time></trkpt><trkpt lat="39.82305179226826" lon="8.77764826383999"><ele>520.2</ele><time>2026-04-27T09:19:38.894Z</time></trkpt><trkpt lat="39.82299658413712" lon="8.777525018914208"><ele>520.8000000000001</ele><time>2026-04-27T09:19:39.894Z</time></trkpt><trkpt lat="39.82293969191943" lon="8.777396235254663"><ele>521.4</ele><time>2026-04-27T09:19:40.894Z</time></trkpt><trkpt lat="39.8228827970647" lon="8.777269706705727"><ele>522.0</ele><time>2026-04-27T09:19:41.894Z</time></trkpt><trkpt lat="39.8228425018781" lon="8.777147444571682"><ele>522.0</ele><time>2026-04-27T09:19:42.893Z</time></trkpt><trkpt lat="39.82277101647337" lon="8.777022899366184"><ele>522.0</ele><time>2026-04-27T09:19:43.893Z</time></trkpt><trkpt lat="39.82270632656464" lon="8.77688501474194"><ele>522.0</ele><time>2026-04-27T09:19:44.893Z</time></trkpt><trkpt lat="39.82262271864281" lon="8.776799150291474"><ele>522.0</ele><time>2026-04-27T09:19:45.893Z</time></trkpt><trkpt lat="39.822544536869856" lon="8.776681674367156"><ele>523.75</ele><time>2026-04-27T09:19:46.893Z</time></trkpt><trkpt lat="39.822476976115475" lon="8.776556165755473"><ele>525.5</ele><time>2026-04-27T09:19:47.892Z</time></trkpt><trkpt lat="39.8224023577368" lon="8.776443340473095"><ele>527.25</ele><time>2026-04-27T09:19:48.892Z</time></trkpt><trkpt lat="39.82232805345673" lon="8.776329701925018"><ele>529.0</ele><time>2026-04-27T09:19:49.892Z</time></trkpt><trkpt lat="39.822257095884204" lon="8.77621800215476"><ele>529.0</ele><time>2026-04-27T09:19:50.892Z</time></trkpt><trkpt lat="39.82217275084821" lon="8.776115130525888"><ele>529.0</ele><time>2026-04-27T09:19:51.892Z</time></trkpt><trkpt lat="39.82210723470867" lon="8.775989857731428"><ele>529.0</ele><time>2026-04-27T09:19:52.892Z</time></trkpt><trkpt lat="39.82204892703621" lon="8.775876210290946"><ele>529.0</ele><time>2026-04-27T09:19:53.892Z</time></trkpt><trkpt lat="39.82198554554752" lon="8.775759265247714"><ele>529.0</ele><time>2026-04-27T09:19:54.892Z</time></trkpt><trkpt lat="39.821923704507256" lon="8.775625006295066"><ele>529.0</ele><time>2026-04-27T09:19:55.892Z</time></trkpt><trkpt lat="39.821853522447725" lon="8.775509090557097"><ele>529.0</ele><time>2026-04-27T09:19:56.891Z</time></trkpt><trkpt lat="39.82179931934025" lon="8.775376174123407"><ele>529.0</ele><time>2026-04-27T09:19:57.891Z</time></trkpt><trkpt lat="39.8217433829546" lon="8.77526016802084"><ele>529.0</ele><time>2026-04-27T09:19:58.891Z</time></trkpt><trkpt lat="39.82168809975735" lon="8.775138191921513"><ele>529.0</ele><time>2026-04-27T09:19:59.891Z</time></trkpt><trkpt lat="39.82162666292003" lon="8.774997232201507"><ele>530.4</ele><time>2026-04-27T09:20:00.891Z</time></trkpt><trkpt lat="39.821595411925976" lon="8.7748844425476"><ele>531.8</ele><time>2026-04-27T09:20:01.891Z</time></trkpt><trkpt lat="39.82156250942375" lon="8.774799279998499"><ele>533.2</ele><time>2026-04-27T09:20:02.891Z</time></trkpt><trkpt lat="39.82153237083742" lon="8.77471785057237"><ele>534.6</ele><time>2026-04-27T09:20:04.891Z</time></trkpt><trkpt lat="39.821391610381056" lon="8.774754293129758"><ele>536.0</ele><time>2026-04-27T09:20:06.891Z</time></trkpt><trkpt lat="39.82126863290611" lon="8.774801268527558"><ele>536.0</ele><time>2026-04-27T09:20:08.891Z</time></trkpt><trkpt lat="39.82119046105545" lon="8.77485894641028"><ele>536.0</ele><time>2026-04-27T09:20:09.891Z</time></trkpt><trkpt lat="39.82110676934929" lon="8.774902697588995"><ele>536.0</ele><time>2026-04-27T09:20:10.891Z</time></trkpt><trkpt lat="39.821017114259796" lon="8.774941113882033"><ele>536.0</ele><time>2026-04-27T09:20:11.891Z</time></trkpt><trkpt lat="39.82092908855992" lon="8.774980542625359"><ele>536.0</ele><time>2026-04-27T09:20:12.891Z</time></trkpt><trkpt lat="39.820844770342575" lon="8.775020190998388"><ele>537.3333333333333</ele><time>2026-04-27T09:20:13.89Z</time></trkpt><trkpt lat="39.82075551646691" lon="8.775053196266928"><ele>538.6666666666666</ele><time>2026-04-27T09:20:14.89Z</time></trkpt><trkpt lat="39.82067477926617" lon="8.77510154910682"><ele>540.0</ele><time>2026-04-27T09:20:15.89Z</time></trkpt><trkpt lat="39.820604829013064" lon="8.775135315325395"><ele>541.3333333333334</ele><time>2026-04-27T09:20:16.89Z</time></trkpt><trkpt lat="39.82053116262682" lon="8.775156193156198"><ele>542.6666666666667</ele><time>2026-04-27T09:20:17.89Z</time></trkpt><trkpt lat="39.82044572635939" lon="8.775170120985813"><ele>544.0</ele><time>2026-04-27T09:20:18.89Z</time></trkpt><trkpt lat="39.82036102523943" lon="8.77518835275134"><ele>544.4</ele><time>2026-04-27T09:20:19.89Z</time></trkpt><trkpt lat="39.82026779201549" lon="8.775226642748706"><ele>544.8</ele><time>2026-04-27T09:20:20.89Z</time></trkpt><trkpt lat="39.820180723413785" lon="8.775274228738649"><ele>545.2</ele><time>2026-04-27T09:20:21.89Z</time></trkpt><trkpt lat="39.820098380872224" lon="8.77532829180564"><ele>545.6</ele><time>2026-04-27T09:20:22.89Z</time></trkpt><trkpt lat="39.82001750176765" lon="8.775374543160156"><ele>546.0</ele><time>2026-04-27T09:20:23.89Z</time></trkpt><trkpt lat="39.819942298177594" lon="8.775418120993255"><ele>546.8</ele><time>2026-04-27T09:20:24.89Z</time></trkpt><trkpt lat="39.81985989301571" lon="8.775461794604931"><ele>547.6</ele><time>2026-04-27T09:20:25.89Z</time></trkpt><trkpt lat="39.81977643519796" lon="8.775509004368377"><ele>548.4</ele><time>2026-04-27T09:20:26.89Z</time></trkpt><trkpt lat="39.8196824066654" lon="8.775548035894296"><ele>549.2</ele><time>2026-04-27T09:20:27.89Z</time></trkpt><trkpt lat="39.819595676485534" lon="8.775572652288872"><ele>550.0</ele><time>2026-04-27T09:20:28.89Z</time></trkpt><trkpt lat="39.819507361920444" lon="8.775582957552745"><ele>550.0</ele><time>2026-04-27T09:20:29.89Z</time></trkpt><trkpt lat="39.81941252553526" lon="8.775582694321896"><ele>550.0</ele><time>2026-04-27T09:20:30.89Z</time></trkpt><trkpt lat="39.819327751429846" lon="8.775557784081665"><ele>550.0</ele><time>2026-04-27T09:20:31.89Z</time></trkpt><trkpt lat="39.819231280492104" lon="8.775545609168432"><ele>550.0</ele><time>2026-04-27T09:20:32.89Z</time></trkpt><trkpt lat="39.81913923588009" lon="8.775529352290471"><ele>550.0</ele><time>2026-04-27T09:20:33.89Z</time></trkpt><trkpt lat="39.81905435252345" lon="8.775529989148948"><ele>550.8</ele><time>2026-04-27T09:20:34.89Z</time></trkpt><trkpt lat="39.81897494070059" lon="8.77555602640007"><ele>551.6</ele><time>2026-04-27T09:20:35.89Z</time></trkpt><trkpt lat="39.81887668117768" lon="8.775586028082"><ele>552.4</ele><time>2026-04-27T09:20:36.89Z</time></trkpt><trkpt lat="39.81877551194061" lon="8.775635937427039"><ele>553.2</ele><time>2026-04-27T09:20:37.89Z</time></trkpt><trkpt lat="39.81868881330832" lon="8.775689996080857"><ele>554.0</ele><time>2026-04-27T09:20:38.89Z</time></trkpt><trkpt lat="39.818599549896184" lon="8.775738995256088"><ele>554.0</ele><time>2026-04-27T09:20:39.89Z</time></trkpt><trkpt lat="39.818517180835066" lon="8.775797023146835"><ele>554.0</ele><time>2026-04-27T09:20:40.89Z</time></trkpt><trkpt lat="39.81843395247202" lon="8.775867425350812"><ele>554.0</ele><time>2026-04-27T09:20:41.89Z</time></trkpt><trkpt lat="39.8183422355457" lon="8.775946127368671"><ele>554.0</ele><time>2026-04-27T09:20:42.89Z</time></trkpt><trkpt lat="39.818243579477794" lon="8.776017336137645"><ele>554.0</ele><time>2026-04-27T09:20:43.89Z</time></trkpt><trkpt lat="39.818147449172066" lon="8.776092230475328"><ele>552.75</ele><time>2026-04-27T09:20:44.89Z</time></trkpt><trkpt lat="39.818051029003826" lon="8.776162132629786"><ele>551.5</ele><time>2026-04-27T09:20:45.89Z</time></trkpt><trkpt lat="39.81794946561777" lon="8.776224440905173"><ele>550.25</ele><time>2026-04-27T09:20:46.89Z</time></trkpt><trkpt lat="39.81784443645973" lon="8.776294404184693"><ele>549.0</ele><time>2026-04-27T09:20:47.89Z</time></trkpt><trkpt lat="39.81773951224686" lon="8.776355692545142"><ele>549.5</ele><time>2026-04-27T09:20:48.89Z</time></trkpt><trkpt lat="39.817643698672136" lon="8.776434473494245"><ele>550.0</ele><time>2026-04-27T09:20:49.89Z</time></trkpt><trkpt lat="39.817542520990244" lon="8.77651669464588"><ele>550.5</ele><time>2026-04-27T09:20:50.89Z</time></trkpt><trkpt lat="39.817448042567854" lon="8.776592182556271"><ele>551.0</ele><time>2026-04-27T09:20:51.89Z</time></trkpt><trkpt lat="39.81734313838101" lon="8.776657942188066"><ele>551.0</ele><time>2026-04-27T09:20:52.89Z</time></trkpt><trkpt lat="39.81723959734506" lon="8.77672500287701"><ele>551.0</ele><time>2026-04-27T09:20:53.89Z</time></trkpt><trkpt lat="39.817137102064436" lon="8.776782969307009"><ele>551.0</ele><time>2026-04-27T09:20:54.89Z</time></trkpt><trkpt lat="39.817041023703624" lon="8.776839706267591"><ele>551.0</ele><time>2026-04-27T09:20:55.89Z</time></trkpt><trkpt lat="39.816943921076806" lon="8.776896303884703"><ele>551.0</ele><time>2026-04-27T09:20:56.89Z</time></trkpt><trkpt lat="39.81685610756453" lon="8.776972443144725"><ele>550.2</ele><time>2026-04-27T09:20:57.89Z</time></trkpt><trkpt lat="39.816769267041245" lon="8.777046745658664"><ele>549.4000000000001</ele><time>2026-04-27T09:20:58.89Z</time></trkpt><trkpt lat="39.81668091147166" lon="8.777129924997901"><ele>548.6</ele><time>2026-04-27T09:20:59.89Z</time></trkpt><trkpt lat="39.81659470109559" lon="8.77721393456581"><ele>547.8000000000001</ele><time>2026-04-27T09:21:00.89Z</time></trkpt><trkpt lat="39.81650996655881" lon="8.777282159874288"><ele>547.0</ele><time>2026-04-27T09:21:01.89Z</time></trkpt><trkpt lat="39.81642787145459" lon="8.777344727142271"><ele>547.0</ele><time>2026-04-27T09:21:02.89Z</time></trkpt><trkpt lat="39.81635300979986" lon="8.777394888297133"><ele>547.0</ele><time>2026-04-27T09:21:03.89Z</time></trkpt><trkpt lat="39.81628371251537" lon="8.777434556547565"><ele>547.0</ele><time>2026-04-27T09:21:04.89Z</time></trkpt><trkpt lat="39.81621412439332" lon="8.777453623564782"><ele>547.0</ele><time>2026-04-27T09:21:05.89Z</time></trkpt><trkpt lat="39.81610404719786" lon="8.777424711090028"><ele>547.0</ele><time>2026-04-27T09:21:07.889Z</time></trkpt><trkpt lat="39.81603105017731" lon="8.77734343040821"><ele>547.0</ele><time>2026-04-27T09:21:09.889Z</time></trkpt><trkpt lat="39.81601113479603" lon="8.77721065324318"><ele>547.0</ele><time>2026-04-27T09:21:11.889Z</time></trkpt><trkpt lat="39.816013248000665" lon="8.777102566117357"><ele>547.0</ele><time>2026-04-27T09:21:12.889Z</time></trkpt><trkpt lat="39.8160242814507" lon="8.77698426520343"><ele>547.0</ele><time>2026-04-27T09:21:13.889Z</time></trkpt><trkpt lat="39.81604586787297" lon="8.77687684626283"><ele>547.0</ele><time>2026-04-27T09:21:14.889Z</time></trkpt><trkpt lat="39.81605412277441" lon="8.776763549373483"><ele>547.0</ele><time>2026-04-27T09:21:16.889Z</time></trkpt><trkpt lat="39.81601630255775" lon="8.776693845329843"><ele>547.0</ele><time>2026-04-27T09:21:32.887Z</time></trkpt><trkpt lat="39.815957956092795" lon="8.77665186334412"><ele>548.6666666666667</ele><time>2026-04-27T09:21:39.887Z</time></trkpt><trkpt lat="39.81588471833693" lon="8.776616240582632"><ele>550.3333333333334</ele><time>2026-04-27T09:21:41.887Z</time></trkpt><trkpt lat="39.81582203747881" lon="8.7765896880586"><ele>552.0</ele><time>2026-04-27T09:21:42.887Z</time></trkpt><trkpt lat="39.81574511488206" lon="8.776554071825485"><ele>553.6666666666666</ele><time>2026-04-27T09:21:43.887Z</time></trkpt><trkpt lat="39.81568519210224" lon="8.776525775045942"><ele>555.3333333333333</ele><time>2026-04-27T09:21:44.887Z</time></trkpt><trkpt lat="39.815540756431936" lon="8.776452017546994"><ele>557.0</ele><time>2026-04-27T09:21:46.887Z</time></trkpt><trkpt lat="39.815473843610576" lon="8.776420649589731"><ele>557.0</ele><time>2026-04-27T09:21:47.887Z</time></trkpt><trkpt lat="39.815387905142856" lon="8.776383079235996"><ele>557.0</ele><time>2026-04-27T09:21:48.887Z</time></trkpt><trkpt lat="39.815300771927056" lon="8.776352439926885"><ele>557.0</ele><time>2026-04-27T09:21:49.887Z</time></trkpt><trkpt lat="39.81521460529559" lon="8.776315192237126"><ele>557.0</ele><time>2026-04-27T09:21:50.887Z</time></trkpt><trkpt lat="39.81513809824098" lon="8.776261675208758"><ele>557.0</ele><time>2026-04-27T09:21:51.887Z</time></trkpt><trkpt lat="39.81505470428213" lon="8.776208212465429"><ele>556.6666666666666</ele><time>2026-04-27T09:21:52.887Z</time></trkpt><trkpt lat="39.81499454055385" lon="8.776179468569541"><ele>556.3333333333333</ele><time>2026-04-27T09:21:53.887Z</time></trkpt><trkpt lat="39.81489140696497" lon="8.776134559274029"><ele>556.0</ele><time>2026-04-27T09:21:55.887Z</time></trkpt><trkpt lat="39.81479500232203" lon="8.776074976951815"><ele>555.6666666666666</ele><time>2026-04-27T09:21:57.887Z</time></trkpt><trkpt lat="39.81472915976179" lon="8.776039242502653"><ele>555.3333333333334</ele><time>2026-04-27T09:21:59.887Z</time></trkpt><trkpt lat="39.81468042942093" lon="8.775976098836788"><ele>555.0</ele><time>2026-04-27T09:22:01.887Z</time></trkpt><trkpt lat="39.814607368788266" lon="8.775904440561419"><ele>555.2</ele><time>2026-04-27T09:22:05.887Z</time></trkpt><trkpt lat="39.81455124746375" lon="8.775807073751668"><ele>555.4</ele><time>2026-04-27T09:22:07.887Z</time></trkpt><trkpt lat="39.814443301881425" lon="8.775769216361315"><ele>555.6</ele><time>2026-04-27T09:22:10.887Z</time></trkpt><trkpt lat="39.81435555809424" lon="8.77573696926835"><ele>555.8</ele><time>2026-04-27T09:22:14.887Z</time></trkpt><trkpt lat="39.81428527697815" lon="8.775705338607873"><ele>556.0</ele><time>2026-04-27T09:22:15.887Z</time></trkpt><trkpt lat="39.8142070990389" lon="8.775663787617269"><ele>556.0</ele><time>2026-04-27T09:22:16.887Z</time></trkpt><trkpt lat="39.814139347047366" lon="8.77562866493901"><ele>556.0</ele><time>2026-04-27T09:22:17.887Z</time></trkpt><trkpt lat="39.81407275246364" lon="8.775585350378194"><ele>556.0</ele><time>2026-04-27T09:22:18.887Z</time></trkpt><trkpt lat="39.81399774661325" lon="8.775470598333067"><ele>556.0</ele><time>2026-04-27T09:22:20.887Z</time></trkpt><trkpt lat="39.81391918972126" lon="8.775421183530952"><ele>556.0</ele><time>2026-04-27T09:22:22.887Z</time></trkpt><trkpt lat="39.81387105759747" lon="8.775348832585156"><ele>556.0</ele><time>2026-04-27T09:22:24.887Z</time></trkpt><trkpt lat="39.8138072037007" lon="8.77528953645659"><ele>556.0</ele><time>2026-04-27T09:22:26.887Z</time></trkpt><trkpt lat="39.813743086396656" lon="8.775191459618013"><ele>556.0</ele><time>2026-04-27T09:22:28.887Z</time></trkpt><trkpt lat="39.81369577305524" lon="8.775125372759184"><ele>556.0</ele><time>2026-04-27T09:22:29.887Z</time></trkpt><trkpt lat="39.813622886597685" lon="8.775020006054852"><ele>556.0</ele><time>2026-04-27T09:22:31.887Z</time></trkpt><trkpt lat="39.81355193778655" lon="8.774905546700907"><ele>556.0</ele><time>2026-04-27T09:22:33.887Z</time></trkpt><trkpt lat="39.8135122101261" lon="8.774802194955305"><ele>555.7142857142857</ele><time>2026-04-27T09:22:34.887Z</time></trkpt><trkpt lat="39.81347052014824" lon="8.774725980457923"><ele>555.4285714285714</ele><time>2026-04-27T09:22:35.887Z</time></trkpt><trkpt lat="39.81343995844696" lon="8.774644217717771"><ele>555.1428571428571</ele><time>2026-04-27T09:22:36.887Z</time></trkpt><trkpt lat="39.81340948004335" lon="8.774560382436379"><ele>554.8571428571429</ele><time>2026-04-27T09:22:37.887Z</time></trkpt><trkpt lat="39.81338076811538" lon="8.774486021587247"><ele>554.5714285714286</ele><time>2026-04-27T09:22:38.887Z</time></trkpt><trkpt lat="39.8133466189503" lon="8.77440890811689"><ele>554.2857142857142</ele><time>2026-04-27T09:22:39.887Z</time></trkpt><trkpt lat="39.81330566073571" lon="8.774310011496016"><ele>554.0</ele><time>2026-04-27T09:22:41.887Z</time></trkpt><trkpt lat="39.81326375051326" lon="8.774191857639817"><ele>554.0</ele><time>2026-04-27T09:22:43.887Z</time></trkpt><trkpt lat="39.81322831847804" lon="8.774046593090995"><ele>554.0</ele><time>2026-04-27T09:22:45.887Z</time></trkpt><trkpt lat="39.81319576410411" lon="8.773948822974765"><ele>554.0</ele><time>2026-04-27T09:22:48.887Z</time></trkpt><trkpt lat="39.81305811244756" lon="8.773512720428604"><ele>555.1666666666666</ele><time>2026-04-27T09:22:49.886Z</time></trkpt><trkpt lat="39.813026758082245" lon="8.773421679839965"><ele>556.3333333333333</ele><time>2026-04-27T09:22:50.886Z</time></trkpt><trkpt lat="39.81299121198514" lon="8.773292875563277"><ele>557.5</ele><time>2026-04-27T09:22:51.886Z</time></trkpt><trkpt lat="39.81297132350808" lon="8.773164964755304"><ele>558.6666666666666</ele><time>2026-04-27T09:22:52.886Z</time></trkpt><trkpt lat="39.81295889844236" lon="8.773075005082909"><ele>559.8333333333334</ele><time>2026-04-27T09:22:53.886Z</time></trkpt><trkpt lat="39.81294740598577" lon="8.772990165993267"><ele>561.0</ele><time>2026-04-27T09:22:54.886Z</time></trkpt><trkpt lat="39.81293194334574" lon="8.772900095071906"><ele>561.0</ele><time>2026-04-27T09:22:55.886Z</time></trkpt><trkpt lat="39.812919536799775" lon="8.77281428511527"><ele>561.0</ele><time>2026-04-27T09:22:56.886Z</time></trkpt><trkpt lat="39.8129137584076" lon="8.772682236996157"><ele>561.0</ele><time>2026-04-27T09:22:58.886Z</time></trkpt><trkpt lat="39.81289674228031" lon="8.772555627713142"><ele>561.0</ele><time>2026-04-27T09:22:59.886Z</time></trkpt><trkpt lat="39.81286234672859" lon="8.772422260906902"><ele>561.0</ele><time>2026-04-27T09:23:00.886Z</time></trkpt><trkpt lat="39.812829122715264" lon="8.772328744620406"><ele>559.25</ele><time>2026-04-27T09:23:01.886Z</time></trkpt><trkpt lat="39.81278626466197" lon="8.772237947729495"><ele>557.5</ele><time>2026-04-27T09:23:02.886Z</time></trkpt><trkpt lat="39.81270219809684" lon="8.772080739195083"><ele>555.75</ele><time>2026-04-27T09:23:04.886Z</time></trkpt><trkpt lat="39.812629740045466" lon="8.771980739142329"><ele>554.0</ele><time>2026-04-27T09:23:05.886Z</time></trkpt><trkpt lat="39.81253142257779" lon="8.771896528439425"><ele>554.0</ele><time>2026-04-27T09:23:06.886Z</time></trkpt><trkpt lat="39.81238818200886" lon="8.771849861100955"><ele>554.0</ele><time>2026-04-27T09:23:07.886Z</time></trkpt><trkpt lat="39.812287103666925" lon="8.771859341752334"><ele>554.0</ele><time>2026-04-27T09:23:08.886Z</time></trkpt><trkpt lat="39.812208693565594" lon="8.77186098290102"><ele>554.0</ele><time>2026-04-27T09:23:09.886Z</time></trkpt><trkpt lat="39.812115461821314" lon="8.771823043028776"><ele>554.0</ele><time>2026-04-27T09:23:10.886Z</time></trkpt><trkpt lat="39.812021515189784" lon="8.771757811318256"><ele>554.6</ele><time>2026-04-27T09:23:11.886Z</time></trkpt><trkpt lat="39.811944544337344" lon="8.771700770871263"><ele>555.2</ele><time>2026-04-27T09:23:12.886Z</time></trkpt><trkpt lat="39.81182710105637" lon="8.771661668529173"><ele>555.8000000000001</ele><time>2026-04-27T09:23:13.886Z</time></trkpt><trkpt lat="39.811711960732985" lon="8.771611070713282"><ele>556.4</ele><time>2026-04-27T09:23:14.886Z</time></trkpt><trkpt lat="39.81161991955754" lon="8.771540811292086"><ele>557.0</ele><time>2026-04-27T09:23:15.886Z</time></trkpt><trkpt lat="39.811533871107635" lon="8.771494486131946"><ele>557.0</ele><time>2026-04-27T09:23:16.886Z</time></trkpt><trkpt lat="39.81144521806002" lon="8.771442986100586"><ele>557.0</ele><time>2026-04-27T09:23:17.886Z</time></trkpt><trkpt lat="39.81134489874695" lon="8.77139973694408"><ele>557.0</ele><time>2026-04-27T09:23:18.886Z</time></trkpt><trkpt lat="39.81125888951841" lon="8.77133127935937"><ele>557.0</ele><time>2026-04-27T09:23:19.886Z</time></trkpt><trkpt lat="39.8111667652579" lon="8.771269081240245"><ele>557.0</ele><time>2026-04-27T09:23:20.886Z</time></trkpt><trkpt lat="39.81107636146558" lon="8.771197372245622"><ele>557.0</ele><time>2026-04-27T09:23:21.886Z</time></trkpt><trkpt lat="39.81099093201221" lon="8.771129551789738"><ele>557.0</ele><time>2026-04-27T09:23:22.886Z</time></trkpt><trkpt lat="39.81090089543978" lon="8.771056523327186"><ele>557.0</ele><time>2026-04-27T09:23:23.886Z</time></trkpt><trkpt lat="39.81080402149374" lon="8.77098564343337"><ele>557.0</ele><time>2026-04-27T09:23:24.885Z</time></trkpt><trkpt lat="39.81071495667394" lon="8.770903153777384"><ele>557.0</ele><time>2026-04-27T09:23:25.886Z</time></trkpt><trkpt lat="39.8106320862003" lon="8.77084056563426"><ele>558.0</ele><time>2026-04-27T09:23:26.886Z</time></trkpt><trkpt lat="39.81056506455774" lon="8.770786089949032"><ele>559.0</ele><time>2026-04-27T09:23:27.885Z</time></trkpt><trkpt lat="39.81046306238675" lon="8.770752157383644"><ele>560.0</ele><time>2026-04-27T09:23:29.885Z</time></trkpt><trkpt lat="39.81037822594942" lon="8.770694718073734"><ele>561.0</ele><time>2026-04-27T09:23:31.886Z</time></trkpt><trkpt lat="39.81026683270619" lon="8.770642350940154"><ele>562.0</ele><time>2026-04-27T09:23:33.885Z</time></trkpt><trkpt lat="39.8101921372494" lon="8.770600875806661"><ele>562.0</ele><time>2026-04-27T09:23:34.885Z</time></trkpt><trkpt lat="39.81011876014941" lon="8.770559554397739"><ele>562.0</ele><time>2026-04-27T09:23:35.885Z</time></trkpt><trkpt lat="39.81004842237452" lon="8.770519998845536"><ele>562.0</ele><time>2026-04-27T09:23:36.885Z</time></trkpt><trkpt lat="39.80998195810458" lon="8.770446980384"><ele>562.0</ele><time>2026-04-27T09:23:37.886Z</time></trkpt><trkpt lat="39.8099100378226" lon="8.770383372398369"><ele>562.0</ele><time>2026-04-27T09:23:38.886Z</time></trkpt><trkpt lat="39.809845470820115" lon="8.77031070891012"><ele>562.0</ele><time>2026-04-27T09:23:39.886Z</time></trkpt><trkpt lat="39.80977308389244" lon="8.770247073703773"><ele>563.2</ele><time>2026-04-27T09:23:40.886Z</time></trkpt><trkpt lat="39.80970572942857" lon="8.770157510460903"><ele>564.4000000000001</ele><time>2026-04-27T09:23:41.886Z</time></trkpt><trkpt lat="39.80963382570142" lon="8.770066661016477"><ele>565.5999999999999</ele><time>2026-04-27T09:23:42.886Z</time></trkpt><trkpt lat="39.80955995672619" lon="8.769972652882515"><ele>566.8</ele><time>2026-04-27T09:23:43.886Z</time></trkpt><trkpt lat="39.80948700948628" lon="8.769887553135817"><ele>568.0</ele><time>2026-04-27T09:23:44.886Z</time></trkpt><trkpt lat="39.809426396185195" lon="8.769815148998557"><ele>568.0</ele><time>2026-04-27T09:23:45.886Z</time></trkpt><trkpt lat="39.80937407105092" lon="8.76972342659368"><ele>568.0</ele><time>2026-04-27T09:23:46.886Z</time></trkpt><trkpt lat="39.80932531634366" lon="8.76965658894702"><ele>568.0</ele><time>2026-04-27T09:23:47.886Z</time></trkpt><trkpt lat="39.809256902539474" lon="8.769553777263182"><ele>568.0</ele><time>2026-04-27T09:23:49.886Z</time></trkpt><trkpt lat="39.80926446791146" lon="8.769370311923648"><ele>568.0</ele><time>2026-04-27T09:23:52.885Z</time></trkpt><trkpt lat="39.80935960630091" lon="8.769314197487116"><ele>569.25</ele><time>2026-04-27T09:23:54.885Z</time></trkpt><trkpt lat="39.809504047275" lon="8.769229004133313"><ele>570.5</ele><time>2026-04-27T09:23:56.885Z</time></trkpt><trkpt lat="39.80961150683149" lon="8.76918817538271"><ele>571.75</ele><time>2026-04-27T09:23:57.885Z</time></trkpt><trkpt lat="39.80972007596484" lon="8.769105781558391"><ele>573.0</ele><time>2026-04-27T09:23:58.885Z</time></trkpt><trkpt lat="39.809839149260306" lon="8.769039770165538"><ele>573.0</ele><time>2026-04-27T09:23:59.885Z</time></trkpt><trkpt lat="39.809962494920484" lon="8.768968504819048"><ele>573.0</ele><time>2026-04-27T09:24:00.885Z</time></trkpt><trkpt lat="39.81008905071378" lon="8.76889353309895"><ele>573.0</ele><time>2026-04-27T09:24:01.885Z</time></trkpt><trkpt lat="39.81022685013008" lon="8.7688023231305"><ele>573.0</ele><time>2026-04-27T09:24:02.885Z</time></trkpt><trkpt lat="39.810358981144496" lon="8.768729867671015"><ele>574.0</ele><time>2026-04-27T09:24:03.885Z</time></trkpt><trkpt lat="39.81047238794749" lon="8.768657562497147"><ele>575.0</ele><time>2026-04-27T09:24:04.885Z</time></trkpt><trkpt lat="39.81058105467726" lon="8.768587697951496"><ele>576.0</ele><time>2026-04-27T09:24:05.885Z</time></trkpt><trkpt lat="39.81068713750076" lon="8.768531228189202"><ele>577.0</ele><time>2026-04-27T09:24:06.885Z</time></trkpt><trkpt lat="39.81078790011261" lon="8.768473497463317"><ele>578.0</ele><time>2026-04-27T09:24:07.885Z</time></trkpt><trkpt lat="39.81087352358457" lon="8.76841690380835"><ele>579.0</ele><time>2026-04-27T09:24:08.885Z</time></trkpt><trkpt lat="39.810950274222535" lon="8.768367946655019"><ele>580.0</ele><time>2026-04-27T09:24:09.885Z</time></trkpt><trkpt lat="39.811026277968494" lon="8.768326346801183"><ele>581.0</ele><time>2026-04-27T09:24:10.885Z</time></trkpt><trkpt lat="39.81109894297777" lon="8.768287819708974"><ele>582.0</ele><time>2026-04-27T09:24:11.885Z</time></trkpt><trkpt lat="39.81116240117253" lon="8.768241713968859"><ele>583.0</ele><time>2026-04-27T09:24:12.885Z</time></trkpt><trkpt lat="39.8112229276669" lon="8.768200874403007"><ele>583.0</ele><time>2026-04-27T09:24:13.885Z</time></trkpt><trkpt lat="39.81130566708669" lon="8.768163680168767"><ele>583.0</ele><time>2026-04-27T09:24:15.885Z</time></trkpt><trkpt lat="39.81133167838698" lon="8.767980974744441"><ele>583.0</ele><time>2026-04-27T09:24:18.885Z</time></trkpt><trkpt lat="39.811261061492225" lon="8.767865310735539"><ele>583.0</ele><time>2026-04-27T09:24:20.885Z</time></trkpt><trkpt lat="39.81120317587313" lon="8.767809743828197"><ele>583.0</ele><time>2026-04-27T09:24:21.885Z</time></trkpt><trkpt lat="39.81112557724441" lon="8.767781171526932"><ele>583.0</ele><time>2026-04-27T09:24:22.885Z</time></trkpt><trkpt lat="39.81105002934113" lon="8.767763851177365"><ele>583.0</ele><time>2026-04-27T09:24:23.885Z</time></trkpt><trkpt lat="39.81095725116012" lon="8.767744731775167"><ele>583.0</ele><time>2026-04-27T09:24:24.885Z</time></trkpt><trkpt lat="39.81087327904444" lon="8.767735031466373"><ele>583.0</ele><time>2026-04-27T09:24:25.885Z</time></trkpt><trkpt lat="39.81079294500334" lon="8.767721937681713"><ele>583.0</ele><time>2026-04-27T09:24:26.885Z</time></trkpt><trkpt lat="39.81071176866391" lon="8.767700842436932"><ele>583.0</ele><time>2026-04-27T09:24:27.885Z</time></trkpt><trkpt lat="39.81065078932761" lon="8.767669948442444"><ele>584.3333333333334</ele><time>2026-04-27T09:24:28.885Z</time></trkpt><trkpt lat="39.810590521144846" lon="8.767630757921001"><ele>585.6666666666667</ele><time>2026-04-27T09:24:29.885Z</time></trkpt><trkpt lat="39.81052959753354" lon="8.767575129103326"><ele>587.0</ele><time>2026-04-27T09:24:30.885Z</time></trkpt><trkpt lat="39.810464604999915" lon="8.767530790879041"><ele>588.3333333333334</ele><time>2026-04-27T09:24:31.885Z</time></trkpt><trkpt lat="39.81041272303817" lon="8.767466059805118"><ele>589.6666666666666</ele><time>2026-04-27T09:24:32.885Z</time></trkpt><trkpt lat="39.8103633208517" lon="8.767388156617006"><ele>591.0</ele><time>2026-04-27T09:24:33.885Z</time></trkpt><trkpt lat="39.81031270663452" lon="8.767293439963149"><ele>591.0</ele><time>2026-04-27T09:24:34.885Z</time></trkpt><trkpt lat="39.810280725428946" lon="8.76717665144088"><ele>591.0</ele><time>2026-04-27T09:24:35.885Z</time></trkpt><trkpt lat="39.81023522097627" lon="8.767054415170808"><ele>591.0</ele><time>2026-04-27T09:24:36.885Z</time></trkpt><trkpt lat="39.81019803409391" lon="8.766930048832874"><ele>591.0</ele><time>2026-04-27T09:24:37.885Z</time></trkpt><trkpt lat="39.81016440290107" lon="8.766816773146623"><ele>591.0</ele><time>2026-04-27T09:24:38.885Z</time></trkpt><trkpt lat="39.81013593766569" lon="8.766696507255906"><ele>592.0</ele><time>2026-04-27T09:24:39.885Z</time></trkpt><trkpt lat="39.810100349725936" lon="8.766576604753858"><ele>593.0</ele><time>2026-04-27T09:24:40.885Z</time></trkpt><trkpt lat="39.81007132279533" lon="8.766459186926795"><ele>594.0</ele><time>2026-04-27T09:24:41.885Z</time></trkpt><trkpt lat="39.81004270898152" lon="8.766328408654623"><ele>595.0</ele><time>2026-04-27T09:24:42.885Z</time></trkpt><trkpt lat="39.81002458233392" lon="8.766195311775599"><ele>596.0</ele><time>2026-04-27T09:24:43.885Z</time></trkpt><trkpt lat="39.81002022193128" lon="8.766064282279043"><ele>597.1666666666666</ele><time>2026-04-27T09:24:44.885Z</time></trkpt><trkpt lat="39.81002583905835" lon="8.765947138375973"><ele>598.3333333333333</ele><time>2026-04-27T09:24:45.885Z</time></trkpt><trkpt lat="39.81004614003459" lon="8.765844515854553"><ele>599.5</ele><time>2026-04-27T09:24:46.885Z</time></trkpt><trkpt lat="39.81006004944565" lon="8.765763895911904"><ele>600.6666666666666</ele><time>2026-04-27T09:24:47.885Z</time></trkpt><trkpt lat="39.81004512467588" lon="8.765676253984038"><ele>601.8333333333334</ele><time>2026-04-27T09:24:48.885Z</time></trkpt><trkpt lat="39.810020387003455" lon="8.765571794529768"><ele>603.0</ele><time>2026-04-27T09:24:49.885Z</time></trkpt><trkpt lat="39.810011257441865" lon="8.765466183341054"><ele>603.0</ele><time>2026-04-27T09:24:50.885Z</time></trkpt><trkpt lat="39.81001892120443" lon="8.765363303666033"><ele>603.0</ele><time>2026-04-27T09:24:51.885Z</time></trkpt><trkpt lat="39.810000855850504" lon="8.765257037766473"><ele>603.0</ele><time>2026-04-27T09:24:52.885Z</time></trkpt><trkpt lat="39.81001410005676" lon="8.765172682399243"><ele>603.0</ele><time>2026-04-27T09:24:53.885Z</time></trkpt><trkpt lat="39.80998761511883" lon="8.765054301282083"><ele>603.0</ele><time>2026-04-27T09:24:54.885Z</time></trkpt><trkpt lat="39.80997641862592" lon="8.764949482420471"><ele>603.0</ele><time>2026-04-27T09:24:55.885Z</time></trkpt><trkpt lat="39.80997935872383" lon="8.764858057207237"><ele>604.5</ele><time>2026-04-27T09:24:56.885Z</time></trkpt><trkpt lat="39.80996640706006" lon="8.764772475923797"><ele>606.0</ele><time>2026-04-27T09:24:57.885Z</time></trkpt><trkpt lat="39.80995111136977" lon="8.764681601872386"><ele>607.5</ele><time>2026-04-27T09:24:58.885Z</time></trkpt><trkpt lat="39.80989075377755" lon="8.764572127355795"><ele>609.0</ele><time>2026-04-27T09:24:59.885Z</time></trkpt><trkpt lat="39.80982989603678" lon="8.764506431780996"><ele>610.5</ele><time>2026-04-27T09:25:00.885Z</time></trkpt><trkpt lat="39.8097952090131" lon="8.764402570710216"><ele>612.0</ele><time>2026-04-27T09:25:01.885Z</time></trkpt><trkpt lat="39.80972505044434" lon="8.764279460179017"><ele>614.6</ele><time>2026-04-27T09:25:02.885Z</time></trkpt><trkpt lat="39.80967487600787" lon="8.764126875230646"><ele>617.2</ele><time>2026-04-27T09:25:03.885Z</time></trkpt><trkpt lat="39.80965225045066" lon="8.763978314672983"><ele>619.8</ele><time>2026-04-27T09:25:04.885Z</time></trkpt><trkpt lat="39.809629057609" lon="8.763865897431845"><ele>622.4</ele><time>2026-04-27T09:25:05.885Z</time></trkpt><trkpt lat="39.80961529416762" lon="8.763736758898979"><ele>625.0</ele><time>2026-04-27T09:25:06.885Z</time></trkpt><trkpt lat="39.80956154391684" lon="8.763649076876822"><ele>624.5</ele><time>2026-04-27T09:25:07.885Z</time></trkpt><trkpt lat="39.80944593782905" lon="8.763525992751642"><ele>624.0</ele><time>2026-04-27T09:25:09.885Z</time></trkpt><trkpt lat="39.809367399055255" lon="8.763463130591157"><ele>623.5</ele><time>2026-04-27T09:25:10.885Z</time></trkpt><trkpt lat="39.80928176477592" lon="8.76335191776363"><ele>623.0</ele><time>2026-04-27T09:25:11.885Z</time></trkpt><trkpt lat="39.809202933132454" lon="8.763230942895634"><ele>623.0</ele><time>2026-04-27T09:25:12.884Z</time></trkpt><trkpt lat="39.80913446910888" lon="8.763119280302082"><ele>623.0</ele><time>2026-04-27T09:25:13.884Z</time></trkpt><trkpt lat="39.80907788893294" lon="8.762988855405691"><ele>623.0</ele><time>2026-04-27T09:25:14.884Z</time></trkpt><trkpt lat="39.80901362273687" lon="8.762825313563848"><ele>623.0</ele><time>2026-04-27T09:25:15.884Z</time></trkpt><trkpt lat="39.808945488565406" lon="8.76268940294268"><ele>628.0</ele><time>2026-04-27T09:25:16.884Z</time></trkpt><trkpt lat="39.80890954751787" lon="8.762524054825915"><ele>633.0</ele><time>2026-04-27T09:25:17.884Z</time></trkpt><trkpt lat="39.808888974067976" lon="8.76237093512697"><ele>638.0</ele><time>2026-04-27T09:25:18.884Z</time></trkpt><trkpt lat="39.80886736157435" lon="8.762220413630613"><ele>643.0</ele><time>2026-04-27T09:25:19.884Z</time></trkpt><trkpt lat="39.808844906533196" lon="8.7620933060727"><ele>643.0</ele><time>2026-04-27T09:25:20.884Z</time></trkpt><trkpt lat="39.80879612831631" lon="8.761969029749237"><ele>643.0</ele><time>2026-04-27T09:25:21.884Z</time></trkpt><trkpt lat="39.80872891787613" lon="8.761845197517049"><ele>643.0</ele><time>2026-04-27T09:25:22.884Z</time></trkpt><trkpt lat="39.808651461815906" lon="8.761704212028816"><ele>643.0</ele><time>2026-04-27T09:25:23.884Z</time></trkpt><trkpt lat="39.80858527368059" lon="8.761587051155267"><ele>641.6</ele><time>2026-04-27T09:25:24.884Z</time></trkpt><trkpt lat="39.808508120441054" lon="8.761482465497947"><ele>640.1999999999999</ele><time>2026-04-27T09:25:25.884Z</time></trkpt><trkpt lat="39.80842522440068" lon="8.761374977661138"><ele>638.8</ele><time>2026-04-27T09:25:26.884Z</time></trkpt><trkpt lat="39.80835852198298" lon="8.761263180938318"><ele>637.4</ele><time>2026-04-27T09:25:27.884Z</time></trkpt><trkpt lat="39.80830124160831" lon="8.761138034810877"><ele>636.0</ele><time>2026-04-27T09:25:28.884Z</time></trkpt><trkpt lat="39.80825156012688" lon="8.761006425220168"><ele>639.4</ele><time>2026-04-27T09:25:29.884Z</time></trkpt><trkpt lat="39.80819736265315" lon="8.76089038421407"><ele>642.8</ele><time>2026-04-27T09:25:30.883Z</time></trkpt><trkpt lat="39.80813759028595" lon="8.76077781874302"><ele>646.1999999999999</ele><time>2026-04-27T09:25:31.883Z</time></trkpt><trkpt lat="39.80806865076546" lon="8.76069158812869"><ele>649.6</ele><time>2026-04-27T09:25:32.883Z</time></trkpt><trkpt lat="39.80799228100042" lon="8.760586762359472"><ele>653.0</ele><time>2026-04-27T09:25:33.882Z</time></trkpt><trkpt lat="39.80793366863283" lon="8.760488596074094"><ele>653.0</ele><time>2026-04-27T09:25:34.883Z</time></trkpt><trkpt lat="39.80788531947817" lon="8.760389306810493"><ele>653.0</ele><time>2026-04-27T09:25:35.883Z</time></trkpt><trkpt lat="39.80784174912581" lon="8.760272096784862"><ele>653.0</ele><time>2026-04-27T09:25:36.882Z</time></trkpt><trkpt lat="39.80780190750203" lon="8.760140545331414"><ele>653.0</ele><time>2026-04-27T09:25:37.882Z</time></trkpt><trkpt lat="39.80778102068606" lon="8.760014952666474"><ele>653.0</ele><time>2026-04-27T09:25:38.882Z</time></trkpt><trkpt lat="39.807742508760406" lon="8.759867477520363"><ele>652.25</ele><time>2026-04-27T09:25:39.882Z</time></trkpt><trkpt lat="39.8076962767081" lon="8.759731650304985"><ele>651.5</ele><time>2026-04-27T09:25:40.883Z</time></trkpt><trkpt lat="39.80764609581478" lon="8.759599754386782"><ele>650.75</ele><time>2026-04-27T09:25:41.883Z</time></trkpt><trkpt lat="39.80760064603454" lon="8.759454810818635"><ele>650.0</ele><time>2026-04-27T09:25:42.882Z</time></trkpt><trkpt lat="39.80756221558516" lon="8.759297439258228"><ele>651.6</ele><time>2026-04-27T09:25:43.882Z</time></trkpt><trkpt lat="39.80753549891835" lon="8.75914480359018"><ele>653.2</ele><time>2026-04-27T09:25:44.882Z</time></trkpt><trkpt lat="39.80750515354883" lon="8.759013180529154"><ele>654.8</ele><time>2026-04-27T09:25:45.882Z</time></trkpt><trkpt lat="39.80747021688517" lon="8.758884702004103"><ele>656.4</ele><time>2026-04-27T09:25:46.882Z</time></trkpt><trkpt lat="39.807432953206344" lon="8.758758367972824"><ele>658.0</ele><time>2026-04-27T09:25:47.882Z</time></trkpt><trkpt lat="39.80740597656686" lon="8.758615460017865"><ele>660.0</ele><time>2026-04-27T09:25:48.882Z</time></trkpt><trkpt lat="39.80736284353097" lon="8.758454440092455"><ele>662.0</ele><time>2026-04-27T09:25:49.882Z</time></trkpt><trkpt lat="39.80731506063939" lon="8.758276013419867"><ele>664.0</ele><time>2026-04-27T09:25:50.882Z</time></trkpt><trkpt lat="39.80727988808499" lon="8.758158117132094"><ele>666.0</ele><time>2026-04-27T09:25:51.882Z</time></trkpt><trkpt lat="39.80723558096676" lon="8.757993904808773"><ele>666.0</ele><time>2026-04-27T09:25:52.882Z</time></trkpt><trkpt lat="39.80719298328165" lon="8.757833350548806"><ele>666.0</ele><time>2026-04-27T09:25:53.882Z</time></trkpt><trkpt lat="39.807155170731605" lon="8.757676266513453"><ele>666.0</ele><time>2026-04-27T09:25:54.882Z</time></trkpt><trkpt lat="39.80711538451966" lon="8.757512927681267"><ele>666.0</ele><time>2026-04-27T09:25:55.882Z</time></trkpt><trkpt lat="39.80706726268651" lon="8.757348965373183"><ele>668.75</ele><time>2026-04-27T09:25:56.882Z</time></trkpt><trkpt lat="39.80702051950338" lon="8.757177263409972"><ele>671.5</ele><time>2026-04-27T09:25:57.882Z</time></trkpt><trkpt lat="39.80697768547718" lon="8.756990024441489"><ele>674.25</ele><time>2026-04-27T09:25:58.882Z</time></trkpt><trkpt lat="39.80693579514563" lon="8.756807582501542"><ele>677.0</ele><time>2026-04-27T09:25:59.882Z</time></trkpt><trkpt lat="39.806891036780314" lon="8.756623975255447"><ele>678.75</ele><time>2026-04-27T09:26:00.882Z</time></trkpt><trkpt lat="39.80684509256996" lon="8.756438678123939"><ele>680.5</ele><time>2026-04-27T09:26:01.882Z</time></trkpt><trkpt lat="39.806800245663126" lon="8.756262055345177"><ele>682.25</ele><time>2026-04-27T09:26:02.882Z</time></trkpt><trkpt lat="39.80675915742276" lon="8.756086402738518"><ele>684.0</ele><time>2026-04-27T09:26:03.882Z</time></trkpt><trkpt lat="39.806703632017495" lon="8.755908182275485"><ele>686.0</ele><time>2026-04-27T09:26:04.882Z</time></trkpt><trkpt lat="39.80663692074394" lon="8.755726909306683"><ele>688.0</ele><time>2026-04-27T09:26:05.882Z</time></trkpt><trkpt lat="39.806555826644455" lon="8.755550298739854"><ele>690.0</ele><time>2026-04-27T09:26:06.882Z</time></trkpt><trkpt lat="39.806474241562306" lon="8.755355396209936"><ele>692.6666666666666</ele><time>2026-04-27T09:26:07.882Z</time></trkpt><trkpt lat="39.806402595056426" lon="8.755153058749412"><ele>695.3333333333333</ele><time>2026-04-27T09:26:08.882Z</time></trkpt><trkpt lat="39.806339113827384" lon="8.754966966298136"><ele>698.0</ele><time>2026-04-27T09:26:09.882Z</time></trkpt><trkpt lat="39.806278180169706" lon="8.75477844199918"><ele>698.0</ele><time>2026-04-27T09:26:10.882Z</time></trkpt><trkpt lat="39.80622865820661" lon="8.754581142001637"><ele>698.0</ele><time>2026-04-27T09:26:11.882Z</time></trkpt><trkpt lat="39.80616523353299" lon="8.754391152041695"><ele>698.0</ele><time>2026-04-27T09:26:12.882Z</time></trkpt><trkpt lat="39.8060780857151" lon="8.754192629094192"><ele>698.3333333333333</ele><time>2026-04-27T09:26:13.882Z</time></trkpt><trkpt lat="39.806011810071965" lon="8.753984404842948"><ele>698.6666666666666</ele><time>2026-04-27T09:26:14.882Z</time></trkpt><trkpt lat="39.80594274429148" lon="8.753781657297237"><ele>699.0</ele><time>2026-04-27T09:26:15.882Z</time></trkpt><trkpt lat="39.8058748014962" lon="8.75358459996363"><ele>700.0</ele><time>2026-04-27T09:26:16.882Z</time></trkpt><trkpt lat="39.80579985206697" lon="8.753391406151819"><ele>701.0</ele><time>2026-04-27T09:26:17.882Z</time></trkpt><trkpt lat="39.80573388310576" lon="8.753210674317248"><ele>702.0</ele><time>2026-04-27T09:26:18.882Z</time></trkpt><trkpt lat="39.805668159096236" lon="8.75301232694843"><ele>702.0</ele><time>2026-04-27T09:26:19.882Z</time></trkpt><trkpt lat="39.80558902991417" lon="8.75282060591753"><ele>702.0</ele><time>2026-04-27T09:26:20.882Z</time></trkpt><trkpt lat="39.805505405435845" lon="8.752640014658713"><ele>702.0</ele><time>2026-04-27T09:26:21.882Z</time></trkpt><trkpt lat="39.80543746761268" lon="8.75246415525216"><ele>702.6666666666666</ele><time>2026-04-27T09:26:22.882Z</time></trkpt><trkpt lat="39.80537677692848" lon="8.752265588083779"><ele>703.3333333333333</ele><time>2026-04-27T09:26:23.882Z</time></trkpt><trkpt lat="39.805302557491316" lon="8.752061193754283"><ele>704.0</ele><time>2026-04-27T09:26:24.882Z</time></trkpt><trkpt lat="39.80523651953753" lon="8.75187396152764"><ele>705.0</ele><time>2026-04-27T09:26:25.882Z</time></trkpt><trkpt lat="39.80517200609124" lon="8.751696695397921"><ele>706.0</ele><time>2026-04-27T09:26:26.882Z</time></trkpt><trkpt lat="39.80511474881149" lon="8.751553495158383"><ele>707.0</ele><time>2026-04-27T09:26:27.882Z</time></trkpt><trkpt lat="39.80505122592333" lon="8.751453218855465"><ele>708.0</ele><time>2026-04-27T09:26:28.882Z</time></trkpt><trkpt lat="39.8049830364997" lon="8.751324169632516"><ele>710.0</ele><time>2026-04-27T09:26:29.882Z</time></trkpt><trkpt lat="39.804894199812274" lon="8.751213902324414"><ele>712.0</ele><time>2026-04-27T09:26:30.882Z</time></trkpt><trkpt lat="39.8047910235662" lon="8.751113574211145"><ele>714.0</ele><time>2026-04-27T09:26:31.882Z</time></trkpt><trkpt lat="39.804700318063695" lon="8.750990912821564"><ele>716.0</ele><time>2026-04-27T09:26:32.882Z</time></trkpt><trkpt lat="39.80461546778975" lon="8.75084730504122"><ele>717.1999999999999</ele><time>2026-04-27T09:26:33.882Z</time></trkpt><trkpt lat="39.80454272835883" lon="8.75073709637919"><ele>718.4</ele><time>2026-04-27T09:26:34.882Z</time></trkpt><trkpt lat="39.804478499101464" lon="8.750619534305415"><ele>719.6</ele><time>2026-04-27T09:26:35.882Z</time></trkpt><trkpt lat="39.80443806968137" lon="8.750496170535323"><ele>720.8</ele><time>2026-04-27T09:26:36.882Z</time></trkpt><trkpt lat="39.804396327516095" lon="8.750349219334181"><ele>722.0</ele><time>2026-04-27T09:26:37.882Z</time></trkpt><trkpt lat="39.8043537578724" lon="8.750197129869528"><ele>723.4000000000001</ele><time>2026-04-27T09:26:38.882Z</time></trkpt><trkpt lat="39.80432093303425" lon="8.75007056730158"><ele>724.8000000000001</ele><time>2026-04-27T09:26:39.882Z</time></trkpt><trkpt lat="39.8042906375223" lon="8.749932239473914"><ele>726.2</ele><time>2026-04-27T09:26:40.882Z</time></trkpt><trkpt lat="39.80426823165043" lon="8.749818773937314"><ele>727.6</ele><time>2026-04-27T09:26:41.882Z</time></trkpt><trkpt lat="39.80428134684275" lon="8.749726793168772"><ele>729.0</ele><time>2026-04-27T09:26:42.882Z</time></trkpt><trkpt lat="39.8042644934794" lon="8.749599654495634"><ele>729.0</ele><time>2026-04-27T09:26:44.882Z</time></trkpt><trkpt lat="39.80425353482649" lon="8.749503439236136"><ele>729.0</ele><time>2026-04-27T09:26:45.882Z</time></trkpt><trkpt lat="39.80425816007131" lon="8.749335229405347"><ele>729.0</ele><time>2026-04-27T09:26:46.882Z</time></trkpt><trkpt lat="39.80421554871044" lon="8.749176648873574"><ele>729.0</ele><time>2026-04-27T09:26:47.882Z</time></trkpt><trkpt lat="39.80420226220646" lon="8.74904258419435"><ele>729.0</ele><time>2026-04-27T09:26:48.882Z</time></trkpt><trkpt lat="39.804201393601865" lon="8.748927017988034"><ele>729.1666666666666</ele><time>2026-04-27T09:26:49.882Z</time></trkpt><trkpt lat="39.80418821780695" lon="8.748841199045895"><ele>729.3333333333334</ele><time>2026-04-27T09:26:50.882Z</time></trkpt><trkpt lat="39.804159219065674" lon="8.74872099051392"><ele>729.5</ele><time>2026-04-27T09:26:52.882Z</time></trkpt><trkpt lat="39.804118364858425" lon="8.748629211901507"><ele>729.6666666666667</ele><time>2026-04-27T09:26:54.882Z</time></trkpt><trkpt lat="39.804033442023794" lon="8.748560808459397"><ele>729.8333333333334</ele><time>2026-04-27T09:26:56.881Z</time></trkpt><trkpt lat="39.803966712101314" lon="8.748550037027435"><ele>730.0</ele><time>2026-04-27T09:26:57.881Z</time></trkpt><trkpt lat="39.80384907395634" lon="8.748601408642363"><ele>730.0</ele><time>2026-04-27T09:26:59.881Z</time></trkpt><trkpt lat="39.803783893700164" lon="8.748653533851268"><ele>730.0</ele><time>2026-04-27T09:27:01.881Z</time></trkpt><trkpt lat="39.803704575600214" lon="8.748724346456738"><ele>730.0</ele><time>2026-04-27T09:27:03.881Z</time></trkpt><trkpt lat="39.80365172153103" lon="8.748772757825993"><ele>730.0</ele><time>2026-04-27T09:27:04.881Z</time></trkpt><trkpt lat="39.8035963423821" lon="8.748828928650447"><ele>730.0</ele><time>2026-04-27T09:27:05.881Z</time></trkpt><trkpt lat="39.803549054085984" lon="8.74890496160874"><ele>730.0</ele><time>2026-04-27T09:27:06.881Z</time></trkpt><trkpt lat="39.803476637814754" lon="8.74896494063352"><ele>731.6</ele><time>2026-04-27T09:27:07.881Z</time></trkpt><trkpt lat="39.80341675503163" lon="8.749048495004983"><ele>733.2</ele><time>2026-04-27T09:27:08.881Z</time></trkpt><trkpt lat="39.8033612011537" lon="8.749154746798407"><ele>734.8</ele><time>2026-04-27T09:27:09.881Z</time></trkpt><trkpt lat="39.803320781578634" lon="8.749260894417654"><ele>736.4</ele><time>2026-04-27T09:27:10.881Z</time></trkpt><trkpt lat="39.80328693498277" lon="8.749345726507093"><ele>738.0</ele><time>2026-04-27T09:27:11.881Z</time></trkpt><trkpt lat="39.803236811519305" lon="8.749467903173583"><ele>738.3333333333334</ele><time>2026-04-27T09:27:13.881Z</time></trkpt><trkpt lat="39.80316547443681" lon="8.7494826694756"><ele>738.6666666666666</ele><time>2026-04-27T09:27:14.881Z</time></trkpt><trkpt lat="39.80307973108661" lon="8.749511525180791"><ele>739.0</ele><time>2026-04-27T09:27:15.881Z</time></trkpt><trkpt lat="39.80299557853026" lon="8.749503755637367"><ele>739.3333333333333</ele><time>2026-04-27T09:27:16.881Z</time></trkpt><trkpt lat="39.802909834037635" lon="8.749496887285662"><ele>739.6666666666666</ele><time>2026-04-27T09:27:17.881Z</time></trkpt><trkpt lat="39.80282234743205" lon="8.749480136043216"><ele>740.0</ele><time>2026-04-27T09:27:18.881Z</time></trkpt><trkpt lat="39.8027261616495" lon="8.749529497392338"><ele>740.2</ele><time>2026-04-27T09:27:19.881Z</time></trkpt><trkpt lat="39.80263373355949" lon="8.749579162795445"><ele>740.4</ele><time>2026-04-27T09:27:20.881Z</time></trkpt><trkpt lat="39.80253853507238" lon="8.749638458651914"><ele>740.5999999999999</ele><time>2026-04-27T09:27:21.881Z</time></trkpt><trkpt lat="39.802446776150965" lon="8.74971513098159"><ele>740.8</ele><time>2026-04-27T09:27:22.881Z</time></trkpt><trkpt lat="39.802370030684344" lon="8.749777315784637"><ele>741.0</ele><time>2026-04-27T09:27:23.881Z</time></trkpt><trkpt lat="39.802302684327096" lon="8.749834741745326"><ele>741.0</ele><time>2026-04-27T09:27:24.881Z</time></trkpt><trkpt lat="39.802206253321714" lon="8.749897814291366"><ele>741.0</ele><time>2026-04-27T09:27:26.881Z</time></trkpt><trkpt lat="39.80213650067811" lon="8.749910119873089"><ele>741.0</ele><time>2026-04-27T09:27:28.881Z</time></trkpt><trkpt lat="39.80202554839176" lon="8.749942846128366"><ele>741.0</ele><time>2026-04-27T09:28:30.879Z</time></trkpt><trkpt lat="39.80195568119027" lon="8.74997316019336"><ele>741.0</ele><time>2026-04-27T09:28:32.879Z</time></trkpt><trkpt lat="39.80192671396296" lon="8.750071139946822"><ele>741.0</ele><time>2026-04-27T09:28:33.879Z</time></trkpt><trkpt lat="39.80188139473092" lon="8.750216801443251"><ele>741.4</ele><time>2026-04-27T09:28:35.879Z</time></trkpt><trkpt lat="39.801846058698246" lon="8.75035650377498"><ele>741.8</ele><time>2026-04-27T09:28:37.879Z</time></trkpt><trkpt lat="39.801810171475246" lon="8.750447128864002"><ele>742.1999999999999</ele><time>2026-04-27T09:28:38.879Z</time></trkpt><trkpt lat="39.80176287786154" lon="8.75054771799603"><ele>742.5999999999999</ele><time>2026-04-27T09:28:39.879Z</time></trkpt><trkpt lat="39.801714185918314" lon="8.750648030763768"><ele>743.0</ele><time>2026-04-27T09:28:40.879Z</time></trkpt><trkpt lat="39.80167906080808" lon="8.750736666066013"><ele>743.0</ele><time>2026-04-27T09:28:41.879Z</time></trkpt><trkpt lat="39.80164078503565" lon="8.750838013184792"><ele>743.0</ele><time>2026-04-27T09:28:42.879Z</time></trkpt><trkpt lat="39.80159399413503" lon="8.750958762619444"><ele>743.0</ele><time>2026-04-27T09:28:43.879Z</time></trkpt><trkpt lat="39.80153441230997" lon="8.751078128347892"><ele>743.0</ele><time>2026-04-27T09:28:44.879Z</time></trkpt><trkpt lat="39.801477889616955" lon="8.751190810805992"><ele>743.0</ele><time>2026-04-27T09:28:45.879Z</time></trkpt><trkpt lat="39.80141206494851" lon="8.751279366010298"><ele>743.0</ele><time>2026-04-27T09:28:46.879Z</time></trkpt><trkpt lat="39.801337544359754" lon="8.751353773484073"><ele>743.0</ele><time>2026-04-27T09:28:47.879Z</time></trkpt><trkpt lat="39.80126009817633" lon="8.751458479352697"><ele>743.0</ele><time>2026-04-27T09:28:48.879Z</time></trkpt><trkpt lat="39.80116418397472" lon="8.751541404072082"><ele>743.0</ele><time>2026-04-27T09:28:49.879Z</time></trkpt><trkpt lat="39.80105625439468" lon="8.75163347716336"><ele>743.0</ele><time>2026-04-27T09:28:50.879Z</time></trkpt><trkpt lat="39.800935449220404" lon="8.751725634883469"><ele>743.0</ele><time>2026-04-27T09:28:51.879Z</time></trkpt><trkpt lat="39.80080300010482" lon="8.751802859122028"><ele>743.0</ele><time>2026-04-27T09:28:52.879Z</time></trkpt><trkpt lat="39.800670055097534" lon="8.751870193709712"><ele>743.0</ele><time>2026-04-27T09:28:53.879Z</time></trkpt><trkpt lat="39.800500022919444" lon="8.751821518308637"><ele>743.0</ele><time>2026-04-27T09:28:54.879Z</time></trkpt><trkpt lat="39.80032852888206" lon="8.75182825483419"><ele>743.0</ele><time>2026-04-27T09:28:55.879Z</time></trkpt><trkpt lat="39.80017455090904" lon="8.751836074832182"><ele>743.0</ele><time>2026-04-27T09:28:56.879Z</time></trkpt><trkpt lat="39.800018671592795" lon="8.751847853538463"><ele>743.0</ele><time>2026-04-27T09:28:57.879Z</time></trkpt><trkpt lat="39.799866273499404" lon="8.751853769648065"><ele>743.0</ele><time>2026-04-27T09:28:58.879Z</time></trkpt><trkpt lat="39.79971503431531" lon="8.752434807824718"><ele>743.0</ele><time>2026-04-27T09:28:59.879Z</time></trkpt><trkpt lat="39.79954715462973" lon="8.752514253470464"><ele>743.0</ele><time>2026-04-27T09:29:00.879Z</time></trkpt><trkpt lat="39.799384614262145" lon="8.752602149957804"><ele>743.0</ele><time>2026-04-27T09:29:01.879Z</time></trkpt><trkpt lat="39.799225816447894" lon="8.752673731733903"><ele>744.3333333333333</ele><time>2026-04-27T09:29:02.879Z</time></trkpt><trkpt lat="39.79906534348069" lon="8.752739436068753"><ele>745.6666666666666</ele><time>2026-04-27T09:29:03.879Z</time></trkpt><trkpt lat="39.79889988813749" lon="8.75279206219608"><ele>747.0</ele><time>2026-04-27T09:29:04.879Z</time></trkpt><trkpt lat="39.79872809132765" lon="8.752846357378738"><ele>747.0</ele><time>2026-04-27T09:29:05.879Z</time></trkpt><trkpt lat="39.798550540676686" lon="8.752897896734787"><ele>747.0</ele><time>2026-04-27T09:29:06.879Z</time></trkpt><trkpt lat="39.798371947832926" lon="8.752953100131807"><ele>747.0</ele><time>2026-04-27T09:29:07.879Z</time></trkpt><trkpt lat="39.79819092625532" lon="8.753014543703486"><ele>747.3333333333334</ele><time>2026-04-27T09:29:08.879Z</time></trkpt><trkpt lat="39.798018132219724" lon="8.753067606691324"><ele>747.6666666666667</ele><time>2026-04-27T09:29:09.879Z</time></trkpt><trkpt lat="39.79786904942586" lon="8.753112234160353"><ele>748.0</ele><time>2026-04-27T09:29:10.879Z</time></trkpt><trkpt lat="39.79773516573037" lon="8.753146801990141"><ele>747.75</ele><time>2026-04-27T09:29:11.879Z</time></trkpt><trkpt lat="39.797614543035834" lon="8.75318640616068"><ele>747.5</ele><time>2026-04-27T09:29:12.879Z</time></trkpt><trkpt lat="39.79749993360261" lon="8.753233436828408"><ele>747.25</ele><time>2026-04-27T09:29:13.879Z</time></trkpt><trkpt lat="39.797386043271366" lon="8.75330333115372"><ele>747.0</ele><time>2026-04-27T09:29:14.879Z</time></trkpt><trkpt lat="39.7972744082393" lon="8.753400008941338"><ele>747.0</ele><time>2026-04-27T09:29:15.879Z</time></trkpt><trkpt lat="39.7971642721532" lon="8.753498375364721"><ele>747.0</ele><time>2026-04-27T09:29:16.879Z</time></trkpt><trkpt lat="39.797053408912674" lon="8.753565023439041"><ele>747.0</ele><time>2026-04-27T09:29:17.879Z</time></trkpt><trkpt lat="39.796930649279254" lon="8.753612624217801"><ele>747.0</ele><time>2026-04-27T09:29:18.879Z</time></trkpt><trkpt lat="39.79681399219455" lon="8.753631595487798"><ele>746.3333333333334</ele><time>2026-04-27T09:29:19.879Z</time></trkpt><trkpt lat="39.79670061746222" lon="8.753652772864063"><ele>745.6666666666666</ele><time>2026-04-27T09:29:20.879Z</time></trkpt><trkpt lat="39.7965927593629" lon="8.753682898508085"><ele>745.0</ele><time>2026-04-27T09:29:21.879Z</time></trkpt><trkpt lat="39.7965223586381" lon="8.753700072521402"><ele>744.3333333333333</ele><time>2026-04-27T09:29:22.879Z</time></trkpt><trkpt lat="39.796457637438145" lon="8.753717231222476"><ele>743.6666666666666</ele><time>2026-04-27T09:29:23.879Z</time></trkpt><trkpt lat="39.79639479740476" lon="8.753726851373544"><ele>743.0</ele><time>2026-04-27T09:29:25.879Z</time></trkpt><trkpt lat="39.79639260389613" lon="8.753635197700513"><ele>742.8333333333333</ele><time>2026-04-27T09:29:28.879Z</time></trkpt><trkpt lat="39.79637464292612" lon="8.753514076233465"><ele>742.6666666666666</ele><time>2026-04-27T09:29:30.879Z</time></trkpt><trkpt lat="39.79635763937727" lon="8.753407874280644"><ele>742.5</ele><time>2026-04-27T09:29:31.879Z</time></trkpt><trkpt lat="39.79636808797278" lon="8.753320294944755"><ele>742.3333333333334</ele><time>2026-04-27T09:29:32.879Z</time></trkpt><trkpt lat="39.796348934233706" lon="8.753213225732324"><ele>742.1666666666667</ele><time>2026-04-27T09:29:33.879Z</time></trkpt><trkpt lat="39.79634636426877" lon="8.753083579915378"><ele>742.0</ele><time>2026-04-27T09:29:34.879Z</time></trkpt><trkpt lat="39.79634126645135" lon="8.752962055968545"><ele>742.0</ele><time>2026-04-27T09:29:35.879Z</time></trkpt><trkpt lat="39.79633093717428" lon="8.752812098817774"><ele>742.0</ele><time>2026-04-27T09:29:36.879Z</time></trkpt><trkpt lat="39.79631808220449" lon="8.752653781945765"><ele>742.0</ele><time>2026-04-27T09:29:37.879Z</time></trkpt><trkpt lat="39.79630463720394" lon="8.752492088122517"><ele>742.0</ele><time>2026-04-27T09:29:38.879Z</time></trkpt><trkpt lat="39.7962998660828" lon="8.752316215771717"><ele>742.5</ele><time>2026-04-27T09:29:39.879Z</time></trkpt><trkpt lat="39.79626855643011" lon="8.752151013240615"><ele>743.0</ele><time>2026-04-27T09:29:40.879Z</time></trkpt><trkpt lat="39.79625743531239" lon="8.751985439350253"><ele>743.5</ele><time>2026-04-27T09:29:41.879Z</time></trkpt><trkpt lat="39.7962445564869" lon="8.751818289733576"><ele>744.0</ele><time>2026-04-27T09:29:42.877Z</time></trkpt><trkpt lat="39.79623150715054" lon="8.751662366690795"><ele>744.5</ele><time>2026-04-27T09:29:43.878Z</time></trkpt><trkpt lat="39.796216749329524" lon="8.751506252366202"><ele>745.0</ele><time>2026-04-27T09:29:44.878Z</time></trkpt><trkpt lat="39.79620913138218" lon="8.751362626233856"><ele>745.5</ele><time>2026-04-27T09:29:45.877Z</time></trkpt><trkpt lat="39.79621080186091" lon="8.751206240675616"><ele>746.0</ele><time>2026-04-27T09:29:46.878Z</time></trkpt><trkpt lat="39.79620120200293" lon="8.751052263024375"><ele>746.25</ele><time>2026-04-27T09:29:47.878Z</time></trkpt><trkpt lat="39.79619164240511" lon="8.750898931338785"><ele>746.5</ele><time>2026-04-27T09:29:48.877Z</time></trkpt><trkpt lat="39.79616656587459" lon="8.750746084871219"><ele>746.75</ele><time>2026-04-27T09:29:49.877Z</time></trkpt><trkpt lat="39.79617072769057" lon="8.750588080195623"><ele>747.0</ele><time>2026-04-27T09:29:50.877Z</time></trkpt><trkpt lat="39.79614218742389" lon="8.750437889377197"><ele>747.0</ele><time>2026-04-27T09:29:51.877Z</time></trkpt><trkpt lat="39.796131727443885" lon="8.750287121175448"><ele>747.0</ele><time>2026-04-27T09:29:52.877Z</time></trkpt><trkpt lat="39.79612160479991" lon="8.750159526906003"><ele>747.0</ele><time>2026-04-27T09:29:53.877Z</time></trkpt><trkpt lat="39.79611158320466" lon="8.750060489976947"><ele>747.0</ele><time>2026-04-27T09:29:54.877Z</time></trkpt><trkpt lat="39.79611468575664" lon="8.749953749396255"><ele>747.0</ele><time>2026-04-27T09:29:55.877Z</time></trkpt><trkpt lat="39.79610741070778" lon="8.74983870747757"><ele>747.2</ele><time>2026-04-27T09:29:56.877Z</time></trkpt><trkpt lat="39.79609465809314" lon="8.749713861717787"><ele>747.4000000000001</ele><time>2026-04-27T09:29:57.877Z</time></trkpt><trkpt lat="39.79608462107176" lon="8.749586526337703"><ele>747.5999999999999</ele><time>2026-04-27T09:29:58.877Z</time></trkpt><trkpt lat="39.79607139072328" lon="8.749445037757669"><ele>747.8</ele><time>2026-04-27T09:29:59.877Z</time></trkpt><trkpt lat="39.796063204613574" lon="8.749311203649382"><ele>748.0</ele><time>2026-04-27T09:30:00.877Z</time></trkpt><trkpt lat="39.796055295134096" lon="8.749171896703228"><ele>748.75</ele><time>2026-04-27T09:30:01.877Z</time></trkpt><trkpt lat="39.79604229165599" lon="8.749025445859653"><ele>749.5</ele><time>2026-04-27T09:30:02.877Z</time></trkpt><trkpt lat="39.79602778100847" lon="8.7488685095648"><ele>750.25</ele><time>2026-04-27T09:30:03.877Z</time></trkpt><trkpt lat="39.79602407304071" lon="8.74869850110766"><ele>751.0</ele><time>2026-04-27T09:30:04.877Z</time></trkpt><trkpt lat="39.79599521845833" lon="8.748539555619711"><ele>751.8</ele><time>2026-04-27T09:30:05.877Z</time></trkpt><trkpt lat="39.795985823793416" lon="8.748385111405176"><ele>752.5999999999999</ele><time>2026-04-27T09:30:06.877Z</time></trkpt><trkpt lat="39.795951480076" lon="8.748243028795098"><ele>753.4</ele><time>2026-04-27T09:30:07.877Z</time></trkpt><trkpt lat="39.795907997200125" lon="8.748146729369255"><ele>754.2</ele><time>2026-04-27T09:30:08.877Z</time></trkpt><trkpt lat="39.795852348906344" lon="8.748048963619748"><ele>755.0</ele><time>2026-04-27T09:30:09.877Z</time></trkpt><trkpt lat="39.79577610542156" lon="8.747947543581406"><ele>755.0</ele><time>2026-04-27T09:30:10.877Z</time></trkpt><trkpt lat="39.79569445958507" lon="8.747853178051372"><ele>755.0</ele><time>2026-04-27T09:30:11.877Z</time></trkpt><trkpt lat="39.79560245929672" lon="8.747772665542808"><ele>755.0</ele><time>2026-04-27T09:30:12.877Z</time></trkpt><trkpt lat="39.79550363461321" lon="8.747708917556407"><ele>755.0</ele><time>2026-04-27T09:30:13.876Z</time></trkpt><trkpt lat="39.795395622235375" lon="8.747665054230373"><ele>755.0</ele><time>2026-04-27T09:30:14.876Z</time></trkpt><trkpt lat="39.79528070175799" lon="8.747620910501892"><ele>756.25</ele><time>2026-04-27T09:30:15.876Z</time></trkpt><trkpt lat="39.79516840351536" lon="8.747571726372"><ele>757.5</ele><time>2026-04-27T09:30:16.876Z</time></trkpt><trkpt lat="39.79506359110796" lon="8.74750838445052"><ele>758.75</ele><time>2026-04-27T09:30:17.876Z</time></trkpt><trkpt lat="39.794954329851656" lon="8.747451818720249"><ele>760.0</ele><time>2026-04-27T09:30:18.876Z</time></trkpt><trkpt lat="39.79484875531289" lon="8.747376569117014"><ele>760.0</ele><time>2026-04-27T09:30:19.876Z</time></trkpt><trkpt lat="39.7947395983661" lon="8.74731718365474"><ele>760.0</ele><time>2026-04-27T09:30:20.876Z</time></trkpt><trkpt lat="39.79466475338264" lon="8.747296468876236"><ele>760.0</ele><time>2026-04-27T09:30:21.876Z</time></trkpt><trkpt lat="39.79458115982577" lon="8.747248183332477"><ele>760.0</ele><time>2026-04-27T09:30:22.876Z</time></trkpt><trkpt lat="39.79449458128831" lon="8.747203607512414"><ele>760.0</ele><time>2026-04-27T09:30:23.876Z</time></trkpt><trkpt lat="39.794420972280456" lon="8.747164998015496"><ele>760.0</ele><time>2026-04-27T09:30:24.876Z</time></trkpt><trkpt lat="39.79434981377487" lon="8.747134615652314"><ele>760.0</ele><time>2026-04-27T09:30:25.876Z</time></trkpt><trkpt lat="39.79426917670097" lon="8.747097201202138"><ele>760.0</ele><time>2026-04-27T09:30:27.876Z</time></trkpt><trkpt lat="39.79428021023012" lon="8.746924520736663"><ele>760.0</ele><time>2026-04-27T09:30:32.876Z</time></trkpt><trkpt lat="39.79432836373968" lon="8.74685970838656"><ele>760.0</ele><time>2026-04-27T09:30:33.876Z</time></trkpt><trkpt lat="39.7943728419297" lon="8.746796995842836"><ele>760.0</ele><time>2026-04-27T09:30:34.876Z</time></trkpt><trkpt lat="39.79441548014215" lon="8.746731378552289"><ele>761.1666666666667</ele><time>2026-04-27T09:30:35.876Z</time></trkpt><trkpt lat="39.79449890622695" lon="8.746605129921054"><ele>762.3333333333334</ele><time>2026-04-27T09:30:37.876Z</time></trkpt><trkpt lat="39.794569637553245" lon="8.746492194598769"><ele>763.5</ele><time>2026-04-27T09:30:39.876Z</time></trkpt><trkpt lat="39.794610236838615" lon="8.746423303790205"><ele>764.6666666666666</ele><time>2026-04-27T09:30:40.876Z</time></trkpt><trkpt lat="39.794655538517745" lon="8.746363098998154"><ele>765.8333333333333</ele><time>2026-04-27T09:30:41.876Z</time></trkpt><trkpt lat="39.79471044375804" lon="8.74630039182586"><ele>767.0</ele><time>2026-04-27T09:30:42.876Z</time></trkpt><trkpt lat="39.79475648316602" lon="8.746240879697726"><ele>767.0</ele><time>2026-04-27T09:30:43.876Z</time></trkpt><trkpt lat="39.794803565655066" lon="8.746175019387284"><ele>767.0</ele><time>2026-04-27T09:30:44.876Z</time></trkpt><trkpt lat="39.79486848746248" lon="8.74610545691375"><ele>767.0</ele><time>2026-04-27T09:30:45.876Z</time></trkpt><trkpt lat="39.794934426209494" lon="8.746034944198902"><ele>767.0</ele><time>2026-04-27T09:30:46.876Z</time></trkpt><trkpt lat="39.79501552358555" lon="8.745931350817932"><ele>767.0</ele><time>2026-04-27T09:30:48.876Z</time></trkpt><trkpt lat="39.79505841468674" lon="8.74585777189313"><ele>767.0</ele><time>2026-04-27T09:30:49.876Z</time></trkpt><trkpt lat="39.79511418149535" lon="8.745798873956806"><ele>767.1666666666666</ele><time>2026-04-27T09:30:50.876Z</time></trkpt><trkpt lat="39.79515923363656" lon="8.74573614818128"><ele>767.3333333333333</ele><time>2026-04-27T09:30:51.876Z</time></trkpt><trkpt lat="39.79522001112055" lon="8.745651753425081"><ele>767.5</ele><time>2026-04-27T09:30:52.876Z</time></trkpt><trkpt lat="39.79526612612037" lon="8.745589391541484"><ele>767.6666666666666</ele><time>2026-04-27T09:30:53.876Z</time></trkpt><trkpt lat="39.79531434671106" lon="8.745509308016732"><ele>767.8333333333334</ele><time>2026-04-27T09:30:54.876Z</time></trkpt><trkpt lat="39.79537237828971" lon="8.745424645164773"><ele>768.0</ele><time>2026-04-27T09:30:55.876Z</time></trkpt><trkpt lat="39.79543126217003" lon="8.74534246793657"><ele>768.2</ele><time>2026-04-27T09:30:56.876Z</time></trkpt><trkpt lat="39.79549583880828" lon="8.745251837356953"><ele>768.4</ele><time>2026-04-27T09:30:57.876Z</time></trkpt><trkpt lat="39.79555392738768" lon="8.745163337530359"><ele>768.6</ele><time>2026-04-27T09:30:58.876Z</time></trkpt><trkpt lat="39.7956105868475" lon="8.74507676950771"><ele>768.8000000000001</ele><time>2026-04-27T09:30:59.876Z</time></trkpt><trkpt lat="39.79566904021739" lon="8.744988613450037"><ele>769.0</ele><time>2026-04-27T09:31:00.876Z</time></trkpt><trkpt lat="39.795741894294466" lon="8.744896732907218"><ele>769.8000000000001</ele><time>2026-04-27T09:31:01.876Z</time></trkpt><trkpt lat="39.795818989806826" lon="8.744800379600752"><ele>770.6</ele><time>2026-04-27T09:31:02.876Z</time></trkpt><trkpt lat="39.795884962020565" lon="8.7446976217088"><ele>771.4</ele><time>2026-04-27T09:31:03.876Z</time></trkpt><trkpt lat="39.79594936262233" lon="8.744600103571612"><ele>772.2</ele><time>2026-04-27T09:31:04.876Z</time></trkpt><trkpt lat="39.796014049449894" lon="8.744498952389714"><ele>773.0</ele><time>2026-04-27T09:31:05.876Z</time></trkpt><trkpt lat="39.796077713266776" lon="8.744397005207126"><ele>774.0</ele><time>2026-04-27T09:31:06.876Z</time></trkpt><trkpt lat="39.79613537357615" lon="8.74430999189102"><ele>775.0</ele><time>2026-04-27T09:31:07.876Z</time></trkpt><trkpt lat="39.796201137837755" lon="8.744215144553124"><ele>776.0</ele><time>2026-04-27T09:31:08.876Z</time></trkpt><trkpt lat="39.79627136989943" lon="8.74411053269361"><ele>777.0</ele><time>2026-04-27T09:31:09.876Z</time></trkpt><trkpt lat="39.79634069346525" lon="8.744004433485589"><ele>778.0</ele><time>2026-04-27T09:31:10.876Z</time></trkpt><trkpt lat="39.79640826405764" lon="8.7438994644799"><ele>778.0</ele><time>2026-04-27T09:31:11.876Z</time></trkpt><trkpt lat="39.79647663940813" lon="8.743797651803675"><ele>778.0</ele><time>2026-04-27T09:31:12.876Z</time></trkpt><trkpt lat="39.79655030026451" lon="8.743698639098138"><ele>778.0</ele><time>2026-04-27T09:31:13.876Z</time></trkpt><trkpt lat="39.79662207952817" lon="8.743598699520826"><ele>778.0</ele><time>2026-04-27T09:31:14.876Z</time></trkpt><trkpt lat="39.79669520044026" lon="8.743500989863575"><ele>778.0</ele><time>2026-04-27T09:31:15.876Z</time></trkpt><trkpt lat="39.79676648512239" lon="8.743389795567376"><ele>779.2</ele><time>2026-04-27T09:31:16.876Z</time></trkpt><trkpt lat="39.79684035870523" lon="8.743285721480921"><ele>780.4</ele><time>2026-04-27T09:31:17.876Z</time></trkpt><trkpt lat="39.796911519250806" lon="8.743189354552966"><ele>781.6</ele><time>2026-04-27T09:31:18.876Z</time></trkpt><trkpt lat="39.79699096276159" lon="8.7430910009101"><ele>782.8000000000001</ele><time>2026-04-27T09:31:19.876Z</time></trkpt><trkpt lat="39.797075267981946" lon="8.742986708530312"><ele>784.0</ele><time>2026-04-27T09:31:20.876Z</time></trkpt><trkpt lat="39.797156025198234" lon="8.742879858400931"><ele>784.0</ele><time>2026-04-27T09:31:21.876Z</time></trkpt><trkpt lat="39.79724363476441" lon="8.742771671482231"><ele>784.0</ele><time>2026-04-27T09:31:22.876Z</time></trkpt><trkpt lat="39.797316322182986" lon="8.742666678254096"><ele>784.0</ele><time>2026-04-27T09:31:23.876Z</time></trkpt><trkpt lat="39.797389136928416" lon="8.742572086544556"><ele>784.0</ele><time>2026-04-27T09:31:24.876Z</time></trkpt><trkpt lat="39.797464052639526" lon="8.742484409100891"><ele>784.0</ele><time>2026-04-27T09:31:25.876Z</time></trkpt><trkpt lat="39.79752749913956" lon="8.7424039820474"><ele>783.8333333333333</ele><time>2026-04-27T09:31:26.876Z</time></trkpt><trkpt lat="39.79757973287579" lon="8.742336775920997"><ele>783.6666666666666</ele><time>2026-04-27T09:31:27.876Z</time></trkpt><trkpt lat="39.79762053309859" lon="8.74222192692681"><ele>783.5</ele><time>2026-04-27T09:31:29.876Z</time></trkpt><trkpt lat="39.79760157424835" lon="8.742131142084878"><ele>783.3333333333333</ele><time>2026-04-27T09:31:31.876Z</time></trkpt><trkpt lat="39.797534818699276" lon="8.742061197583741"><ele>783.1666666666666</ele><time>2026-04-27T09:31:33.876Z</time></trkpt><trkpt lat="39.79742627424326" lon="8.741994698419466"><ele>783.0</ele><time>2026-04-27T09:31:35.876Z</time></trkpt><trkpt lat="39.79732110578685" lon="8.74194801664223"><ele>783.0</ele><time>2026-04-27T09:31:37.875Z</time></trkpt><trkpt lat="39.79722985683641" lon="8.741887394543419"><ele>783.0</ele><time>2026-04-27T09:31:39.875Z</time></trkpt><trkpt lat="39.79714313474384" lon="8.741804491741638"><ele>783.0</ele><time>2026-04-27T09:31:41.875Z</time></trkpt><trkpt lat="39.79704976631605" lon="8.741702469274573"><ele>783.0</ele><time>2026-04-27T09:31:43.875Z</time></trkpt><trkpt lat="39.796998338532724" lon="8.741648956057205"><ele>783.0</ele><time>2026-04-27T09:31:44.875Z</time></trkpt><trkpt lat="39.79689503111144" lon="8.741558443851076"><ele>781.0</ele><time>2026-04-27T09:31:46.875Z</time></trkpt><trkpt lat="39.79679162093218" lon="8.7415241034508"><ele>779.0</ele><time>2026-04-27T09:31:48.875Z</time></trkpt><trkpt lat="39.79672749451245" lon="8.741510362593957"><ele>777.0</ele><time>2026-04-27T09:31:49.875Z</time></trkpt><trkpt lat="39.796648349089985" lon="8.741485738268477"><ele>775.0</ele><time>2026-04-27T09:31:50.875Z</time></trkpt><trkpt lat="39.79655803990818" lon="8.74146993388653"><ele>773.0</ele><time>2026-04-27T09:31:51.875Z</time></trkpt><trkpt lat="39.79648345647135" lon="8.741455994056608"><ele>771.0</ele><time>2026-04-27T09:31:52.874Z</time></trkpt><trkpt lat="39.79640429974964" lon="8.741437893670357"><ele>771.0</ele><time>2026-04-27T09:31:53.874Z</time></trkpt><trkpt lat="39.79631426163315" lon="8.741401705358795"><ele>771.0</ele><time>2026-04-27T09:31:54.875Z</time></trkpt><trkpt lat="39.796203700704055" lon="8.74134155137425"><ele>771.0</ele><time>2026-04-27T09:31:55.875Z</time></trkpt><trkpt lat="39.79605473065737" lon="8.741275123644273"><ele>771.0</ele><time>2026-04-27T09:31:56.875Z</time></trkpt><trkpt lat="39.79589842589045" lon="8.741183858489258"><ele>769.75</ele><time>2026-04-27T09:31:57.875Z</time></trkpt><trkpt lat="39.795984627179976" lon="8.741400752081612"><ele>768.5</ele><time>2026-04-27T09:31:58.875Z</time></trkpt><trkpt lat="39.79588488122266" lon="8.741418199688948"><ele>767.25</ele><time>2026-04-27T09:31:59.875Z</time></trkpt><trkpt lat="39.795787330805815" lon="8.741444703232204"><ele>766.0</ele><time>2026-04-27T09:32:00.875Z</time></trkpt><trkpt lat="39.7956883309145" lon="8.741465796698815"><ele>766.0</ele><time>2026-04-27T09:32:01.874Z</time></trkpt><trkpt lat="39.79559426368732" lon="8.741484491298518"><ele>766.0</ele><time>2026-04-27T09:32:02.874Z</time></trkpt><trkpt lat="39.795494055135805" lon="8.741507542117727"><ele>766.0</ele><time>2026-04-27T09:32:03.874Z</time></trkpt><trkpt lat="39.795397166065364" lon="8.741526493629607"><ele>766.0</ele><time>2026-04-27T09:32:04.874Z</time></trkpt><trkpt lat="39.79531373971835" lon="8.741529717262992"><ele>766.0</ele><time>2026-04-27T09:32:05.874Z</time></trkpt><trkpt lat="39.79524583879906" lon="8.741528842540099"><ele>766.0</ele><time>2026-04-27T09:32:06.874Z</time></trkpt><trkpt lat="39.795133564970016" lon="8.741528088848105"><ele>765.1999999999999</ele><time>2026-04-27T09:32:08.874Z</time></trkpt><trkpt lat="39.79505802015975" lon="8.741506498010187"><ele>764.4</ele><time>2026-04-27T09:32:10.874Z</time></trkpt><trkpt lat="39.79497242015982" lon="8.741408117154672"><ele>763.6</ele><time>2026-04-27T09:32:12.874Z</time></trkpt><trkpt lat="39.79494660648737" lon="8.741331160044357"><ele>762.8</ele><time>2026-04-27T09:32:13.874Z</time></trkpt><trkpt lat="39.79488561304904" lon="8.741187242092986"><ele>762.0</ele><time>2026-04-27T09:32:15.874Z</time></trkpt><trkpt lat="39.794843033926625" lon="8.741114618954809"><ele>762.0</ele><time>2026-04-27T09:32:16.874Z</time></trkpt><trkpt lat="39.79478783402525" lon="8.741066100744796"><ele>762.0</ele><time>2026-04-27T09:32:17.874Z</time></trkpt><trkpt lat="39.794716902778944" lon="8.741041163392179"><ele>762.0</ele><time>2026-04-27T09:32:18.874Z</time></trkpt><trkpt lat="39.79463946025743" lon="8.741023168347168"><ele>762.0</ele><time>2026-04-27T09:32:19.874Z</time></trkpt><trkpt lat="39.79456115367929" lon="8.741003268716268"><ele>762.0</ele><time>2026-04-27T09:32:20.874Z</time></trkpt><trkpt lat="39.79445607635111" lon="8.74094425474315"><ele>762.0</ele><time>2026-04-27T09:32:22.874Z</time></trkpt><trkpt lat="39.79438779327097" lon="8.740820362959182"><ele>760.0</ele><time>2026-04-27T09:32:24.874Z</time></trkpt><trkpt lat="39.79431165322454" lon="8.740725546503109"><ele>758.0</ele><time>2026-04-27T09:32:26.874Z</time></trkpt><trkpt lat="39.794272853127126" lon="8.740627334559038"><ele>756.0</ele><time>2026-04-27T09:32:28.874Z</time></trkpt><trkpt lat="39.79424234241431" lon="8.740485489480854"><ele>754.0</ele><time>2026-04-27T09:32:30.874Z</time></trkpt><trkpt lat="39.794225610780714" lon="8.740366034670377"><ele>752.0</ele><time>2026-04-27T09:32:32.874Z</time></trkpt><trkpt lat="39.79420773711383" lon="8.740265061478114"><ele>750.0</ele><time>2026-04-27T09:32:34.874Z</time></trkpt><trkpt lat="39.79417912011225" lon="8.740156491362844"><ele>748.0</ele><time>2026-04-27T09:32:36.874Z</time></trkpt><trkpt lat="39.79412331969538" lon="8.74010740456545"><ele>746.0</ele><time>2026-04-27T09:32:37.874Z</time></trkpt><trkpt lat="39.79406694075368" lon="8.740067313407938"><ele>744.0</ele><time>2026-04-27T09:32:38.874Z</time></trkpt><trkpt lat="39.79399251634066" lon="8.74002577116889"><ele>742.0</ele><time>2026-04-27T09:32:39.874Z</time></trkpt><trkpt lat="39.79392598019902" lon="8.74001590803141"><ele>740.0</ele><time>2026-04-27T09:32:40.874Z</time></trkpt><trkpt lat="39.79385122856492" lon="8.740040498137644"><ele>738.0</ele><time>2026-04-27T09:32:41.874Z</time></trkpt><trkpt lat="39.79376942593832" lon="8.740077937537746"><ele>738.0</ele><time>2026-04-27T09:32:42.874Z</time></trkpt><trkpt lat="39.793702234726815" lon="8.74011661597942"><ele>738.0</ele><time>2026-04-27T09:32:43.874Z</time></trkpt><trkpt lat="39.79363009737837" lon="8.74015353504348"><ele>738.0</ele><time>2026-04-27T09:32:44.874Z</time></trkpt><trkpt lat="39.793568752123576" lon="8.740178834758686"><ele>738.0</ele><time>2026-04-27T09:32:45.874Z</time></trkpt><trkpt lat="39.79349364499531" lon="8.740209706667853"><ele>738.0</ele><time>2026-04-27T09:32:46.874Z</time></trkpt><trkpt lat="39.79341828803312" lon="8.740249553029901"><ele>738.0</ele><time>2026-04-27T09:32:47.874Z</time></trkpt><trkpt lat="39.793344688464565" lon="8.740274212336624"><ele>740.8333333333334</ele><time>2026-04-27T09:32:48.874Z</time></trkpt><trkpt lat="39.793280826865306" lon="8.740285944365144"><ele>743.6666666666666</ele><time>2026-04-27T09:32:49.874Z</time></trkpt><trkpt lat="39.793207571284555" lon="8.740299309716695"><ele>746.5</ele><time>2026-04-27T09:32:50.874Z</time></trkpt><trkpt lat="39.793139714200876" lon="8.740340962441211"><ele>749.3333333333333</ele><time>2026-04-27T09:32:51.874Z</time></trkpt><trkpt lat="39.793064327345604" lon="8.740387555396865"><ele>752.1666666666666</ele><time>2026-04-27T09:32:52.874Z</time></trkpt><trkpt lat="39.79298405610653" lon="8.740429738108329"><ele>755.0</ele><time>2026-04-27T09:32:53.874Z</time></trkpt><trkpt lat="39.79290856331388" lon="8.740470223794397"><ele>755.0</ele><time>2026-04-27T09:32:54.874Z</time></trkpt><trkpt lat="39.7928498354064" lon="8.740525177685182"><ele>755.0</ele><time>2026-04-27T09:32:55.874Z</time></trkpt><trkpt lat="39.79277488655795" lon="8.74064412761011"><ele>755.0</ele><time>2026-04-27T09:32:57.874Z</time></trkpt><trkpt lat="39.79274582773199" lon="8.740790069453917"><ele>755.0</ele><time>2026-04-27T09:32:59.874Z</time></trkpt><trkpt lat="39.7927286827533" lon="8.74088262512718"><ele>755.0</ele><time>2026-04-27T09:33:00.874Z</time></trkpt><trkpt lat="39.79269029097478" lon="8.740978813859277"><ele>756.2857142857142</ele><time>2026-04-27T09:33:01.874Z</time></trkpt><trkpt lat="39.79264848625551" lon="8.741058643090208"><ele>757.5714285714287</ele><time>2026-04-27T09:33:02.874Z</time></trkpt><trkpt lat="39.79258285864235" lon="8.741110238643547"><ele>758.8571428571429</ele><time>2026-04-27T09:33:03.874Z</time></trkpt><trkpt lat="39.792533628235844" lon="8.741161793854262"><ele>760.1428571428571</ele><time>2026-04-27T09:33:04.874Z</time></trkpt><trkpt lat="39.79246195769582" lon="8.741186464288889"><ele>761.4285714285713</ele><time>2026-04-27T09:33:05.874Z</time></trkpt><trkpt lat="39.7923822806602" lon="8.741216194464856"><ele>762.7142857142858</ele><time>2026-04-27T09:33:06.874Z</time></trkpt><trkpt lat="39.79230526198514" lon="8.741226765443917"><ele>764.0</ele><time>2026-04-27T09:33:07.874Z</time></trkpt><trkpt lat="39.79221606771348" lon="8.741222180296178"><ele>764.0</ele><time>2026-04-27T09:33:08.874Z</time></trkpt><trkpt lat="39.79212433396187" lon="8.741235249413029"><ele>764.0</ele><time>2026-04-27T09:33:09.874Z</time></trkpt><trkpt lat="39.79203667090211" lon="8.741277354616136"><ele>764.0</ele><time>2026-04-27T09:33:10.874Z</time></trkpt><trkpt lat="39.79195925427748" lon="8.741325187339186"><ele>764.0</ele><time>2026-04-27T09:33:11.874Z</time></trkpt><trkpt lat="39.791893649981496" lon="8.741367922203622"><ele>764.0</ele><time>2026-04-27T09:33:12.873Z</time></trkpt><trkpt lat="39.791819296715474" lon="8.74143136156312"><ele>764.0</ele><time>2026-04-27T09:33:13.873Z</time></trkpt><trkpt lat="39.791757759618875" lon="8.74149158178627"><ele>764.0</ele><time>2026-04-27T09:33:14.873Z</time></trkpt><trkpt lat="39.791716842902765" lon="8.741555872361406"><ele>764.0</ele><time>2026-04-27T09:33:15.873Z</time></trkpt><trkpt lat="39.791627261704846" lon="8.74169066766423"><ele>764.0</ele><time>2026-04-27T09:33:17.873Z</time></trkpt><trkpt lat="39.79154938782849" lon="8.741732386246508"><ele>764.0</ele><time>2026-04-27T09:33:18.873Z</time></trkpt><trkpt lat="39.79145626855355" lon="8.741755471915036"><ele>764.0</ele><time>2026-04-27T09:33:19.873Z</time></trkpt><trkpt lat="39.791371252024824" lon="8.741764608582402"><ele>764.0</ele><time>2026-04-27T09:33:20.873Z</time></trkpt><trkpt lat="39.79127443768364" lon="8.741784870090276"><ele>764.0</ele><time>2026-04-27T09:33:21.873Z</time></trkpt><trkpt lat="39.79117947851745" lon="8.741811475288984"><ele>764.0</ele><time>2026-04-27T09:33:22.873Z</time></trkpt><trkpt lat="39.79108486651841" lon="8.741848345603808"><ele>764.0</ele><time>2026-04-27T09:33:23.873Z</time></trkpt><trkpt lat="39.79099176054066" lon="8.741886974281721"><ele>764.0</ele><time>2026-04-27T09:33:24.873Z</time></trkpt><trkpt lat="39.79089104367391" lon="8.741943778429155"><ele>765.6</ele><time>2026-04-27T09:33:25.873Z</time></trkpt><trkpt lat="39.79078888814265" lon="8.74198176010918"><ele>767.2</ele><time>2026-04-27T09:33:26.873Z</time></trkpt><trkpt lat="39.79068835546029" lon="8.74201176921795"><ele>768.8000000000001</ele><time>2026-04-27T09:33:27.873Z</time></trkpt><trkpt lat="39.79058654064904" lon="8.742052869482963"><ele>770.4000000000001</ele><time>2026-04-27T09:33:28.873Z</time></trkpt><trkpt lat="39.790479842684675" lon="8.742110535050118"><ele>772.0</ele><time>2026-04-27T09:33:29.873Z</time></trkpt><trkpt lat="39.790370541391184" lon="8.742154964977779"><ele>772.0</ele><time>2026-04-27T09:33:30.873Z</time></trkpt><trkpt lat="39.79025448451684" lon="8.742210904998782"><ele>772.0</ele><time>2026-04-27T09:33:31.873Z</time></trkpt><trkpt lat="39.790156767255844" lon="8.74227374423058"><ele>772.0</ele><time>2026-04-27T09:33:32.873Z</time></trkpt><trkpt lat="39.79006794390356" lon="8.74232934128603"><ele>772.0</ele><time>2026-04-27T09:33:33.873Z</time></trkpt><trkpt lat="39.789979563242824" lon="8.742399878450795"><ele>772.0</ele><time>2026-04-27T09:33:34.873Z</time></trkpt><trkpt lat="39.78989650550942" lon="8.742471271343367"><ele>771.4999999999999</ele><time>2026-04-27T09:33:35.873Z</time></trkpt><trkpt lat="39.78981894763453" lon="8.74252529936386"><ele>771.0</ele><time>2026-04-27T09:33:36.873Z</time></trkpt><trkpt lat="39.78973062282556" lon="8.74255354818029"><ele>770.5</ele><time>2026-04-27T09:33:37.873Z</time></trkpt><trkpt lat="39.78963590750058" lon="8.742558385473052"><ele>770.0</ele><time>2026-04-27T09:33:38.873Z</time></trkpt><trkpt lat="39.78954727253268" lon="8.742560668944693"><ele>769.4999999999999</ele><time>2026-04-27T09:33:39.873Z</time></trkpt><trkpt lat="39.78947471931145" lon="8.742570254282564"><ele>769.0</ele><time>2026-04-27T09:33:40.873Z</time></trkpt><trkpt lat="39.789399923169825" lon="8.742594991141388"><ele>768.8000000000001</ele><time>2026-04-27T09:33:41.873Z</time></trkpt><trkpt lat="39.78933278834744" lon="8.742667321478581"><ele>768.6</ele><time>2026-04-27T09:33:42.873Z</time></trkpt><trkpt lat="39.789254406842915" lon="8.742747799860105"><ele>768.4</ele><time>2026-04-27T09:33:43.873Z</time></trkpt><trkpt lat="39.78916790358659" lon="8.742800868109262"><ele>768.2</ele><time>2026-04-27T09:33:44.873Z</time></trkpt><trkpt lat="39.789071814709985" lon="8.742838203797461"><ele>768.0</ele><time>2026-04-27T09:33:45.873Z</time></trkpt><trkpt lat="39.78896707828469" lon="8.742882078671155"><ele>768.3333333333334</ele><time>2026-04-27T09:33:46.873Z</time></trkpt><trkpt lat="39.78888027078485" lon="8.742926616244304"><ele>768.6666666666667</ele><time>2026-04-27T09:33:47.873Z</time></trkpt><trkpt lat="39.788801270035364" lon="8.74295451147766"><ele>769.0</ele><time>2026-04-27T09:33:48.873Z</time></trkpt><trkpt lat="39.788728345854636" lon="8.742969989651195"><ele>769.3333333333334</ele><time>2026-04-27T09:33:49.873Z</time></trkpt><trkpt lat="39.788655841912544" lon="8.74296905294411"><ele>769.6666666666667</ele><time>2026-04-27T09:33:50.873Z</time></trkpt><trkpt lat="39.78856624248047" lon="8.742891497135405"><ele>770.0</ele><time>2026-04-27T09:33:52.873Z</time></trkpt><trkpt lat="39.78856349249259" lon="8.74276137412036"><ele>769.6</ele><time>2026-04-27T09:33:54.872Z</time></trkpt><trkpt lat="39.78859682740866" lon="8.742613775210813"><ele>769.2</ele><time>2026-04-27T09:33:56.872Z</time></trkpt><trkpt lat="39.78861506279299" lon="8.742473337113111"><ele>768.8</ele><time>2026-04-27T09:33:58.872Z</time></trkpt><trkpt lat="39.78852864013847" lon="8.742413242252303"><ele>768.4</ele><time>2026-04-27T09:34:01.872Z</time></trkpt><trkpt lat="39.78845845108582" lon="8.742391403326783"><ele>768.0</ele><time>2026-04-27T09:34:02.872Z</time></trkpt><trkpt lat="39.78839045314676" lon="8.74238452514349"><ele>767.8571428571428</ele><time>2026-04-27T09:34:03.871Z</time></trkpt><trkpt lat="39.78832265088916" lon="8.742385832784914"><ele>767.7142857142857</ele><time>2026-04-27T09:34:04.872Z</time></trkpt><trkpt lat="39.788257320733436" lon="8.742388915993121"><ele>767.5714285714286</ele><time>2026-04-27T09:34:05.872Z</time></trkpt><trkpt lat="39.78819292587074" lon="8.742374119982308"><ele>767.4285714285713</ele><time>2026-04-27T09:34:06.872Z</time></trkpt><trkpt lat="39.78812982983039" lon="8.742344102188564"><ele>767.2857142857143</ele><time>2026-04-27T09:34:07.821Z</time></trkpt><trkpt lat="39.788061035838375" lon="8.742320653264255"><ele>767.1428571428571</ele><time>2026-04-27T09:34:08.821Z</time></trkpt><trkpt lat="39.78798397805304" lon="8.742305816527837"><ele>767.0</ele><time>2026-04-27T09:34:09.821Z</time></trkpt><trkpt lat="39.78791412687154" lon="8.742285676757799"><ele>767.0</ele><time>2026-04-27T09:34:10.821Z</time></trkpt><trkpt lat="39.78783832775332" lon="8.742277049927287"><ele>767.0</ele><time>2026-04-27T09:34:11.821Z</time></trkpt><trkpt lat="39.787768374196304" lon="8.742281553738875"><ele>767.0</ele><time>2026-04-27T09:34:12.821Z</time></trkpt><trkpt lat="39.78769640132249" lon="8.742298613068485"><ele>767.0</ele><time>2026-04-27T09:34:13.821Z</time></trkpt><trkpt lat="39.78756760778815" lon="8.742337469822091"><ele>767.0</ele><time>2026-04-27T09:34:15.821Z</time></trkpt><trkpt lat="39.78749622291918" lon="8.742374595158598"><ele>767.0</ele><time>2026-04-27T09:34:16.821Z</time></trkpt><trkpt lat="39.78741936832234" lon="8.74243858013523"><ele>767.8571428571429</ele><time>2026-04-27T09:34:17.821Z</time></trkpt><trkpt lat="39.787346955499686" lon="8.742474261212605"><ele>768.7142857142858</ele><time>2026-04-27T09:34:18.821Z</time></trkpt><trkpt lat="39.7872727465364" lon="8.742495704355376"><ele>769.5714285714286</ele><time>2026-04-27T09:34:19.821Z</time></trkpt><trkpt lat="39.78720585825971" lon="8.74248638619444"><ele>770.4285714285714</ele><time>2026-04-27T09:34:20.821Z</time></trkpt><trkpt lat="39.78713530235288" lon="8.74245132116556"><ele>771.2857142857142</ele><time>2026-04-27T09:34:21.821Z</time></trkpt><trkpt lat="39.78706540339192" lon="8.742413541895825"><ele>772.1428571428571</ele><time>2026-04-27T09:34:22.821Z</time></trkpt><trkpt lat="39.78699215471827" lon="8.742389170689687"><ele>773.0</ele><time>2026-04-27T09:34:23.821Z</time></trkpt><trkpt lat="39.78691296650155" lon="8.742376729850648"><ele>774.4</ele><time>2026-04-27T09:34:24.821Z</time></trkpt><trkpt lat="39.786821035751025" lon="8.742347727112689"><ele>775.8</ele><time>2026-04-27T09:34:25.821Z</time></trkpt><trkpt lat="39.786726914726955" lon="8.742315740499043"><ele>777.2</ele><time>2026-04-27T09:34:26.821Z</time></trkpt><trkpt lat="39.786623418997756" lon="8.742280673193068"><ele>778.6</ele><time>2026-04-27T09:34:27.821Z</time></trkpt><trkpt lat="39.78651835019782" lon="8.74224285089172"><ele>780.0</ele><time>2026-04-27T09:34:28.821Z</time></trkpt><trkpt lat="39.78643482349713" lon="8.742222831255376"><ele>780.0</ele><time>2026-04-27T09:34:29.821Z</time></trkpt><trkpt lat="39.78635193256422" lon="8.74220346145139"><ele>780.0</ele><time>2026-04-27T09:34:30.821Z</time></trkpt><trkpt lat="39.78626497163098" lon="8.742151449886185"><ele>780.0</ele><time>2026-04-27T09:34:31.821Z</time></trkpt><trkpt lat="39.78619074726749" lon="8.742088273201022"><ele>780.0</ele><time>2026-04-27T09:34:32.821Z</time></trkpt><trkpt lat="39.78613327005371" lon="8.7419984680504"><ele>780.0</ele><time>2026-04-27T09:34:33.82Z</time></trkpt><trkpt lat="39.78607295772785" lon="8.741906418560468"><ele>780.75</ele><time>2026-04-27T09:34:34.82Z</time></trkpt><trkpt lat="39.78601455919564" lon="8.74177428722553"><ele>781.5</ele><time>2026-04-27T09:34:35.82Z</time></trkpt><trkpt lat="39.78595509748683" lon="8.741634275619427"><ele>782.25</ele><time>2026-04-27T09:34:36.82Z</time></trkpt><trkpt lat="39.78589409938379" lon="8.741486564405477"><ele>783.0</ele><time>2026-04-27T09:34:37.82Z</time></trkpt><trkpt lat="39.78583130662942" lon="8.741335729008476"><ele>783.0</ele><time>2026-04-27T09:34:38.82Z</time></trkpt><trkpt lat="39.78577532836024" lon="8.741195959831167"><ele>783.0</ele><time>2026-04-27T09:34:39.82Z</time></trkpt><trkpt lat="39.78572897476415" lon="8.74106559270067"><ele>783.0</ele><time>2026-04-27T09:34:40.82Z</time></trkpt><trkpt lat="39.78568652147402" lon="8.740936659879557"><ele>783.0</ele><time>2026-04-27T09:34:41.82Z</time></trkpt><trkpt lat="39.78565476515932" lon="8.740827945144535"><ele>783.0</ele><time>2026-04-27T09:34:42.82Z</time></trkpt><trkpt lat="39.785583933080694" lon="8.740725743617444"><ele>780.0</ele><time>2026-04-27T09:34:44.82Z</time></trkpt><trkpt lat="39.78541316107832" lon="8.740283723114048"><ele>777.0</ele><time>2026-04-27T09:34:46.82Z</time></trkpt><trkpt lat="39.785370733910725" lon="8.74017996250052"><ele>778.1666666666666</ele><time>2026-04-27T09:34:47.82Z</time></trkpt><trkpt lat="39.78532682362438" lon="8.7400970190303"><ele>779.3333333333333</ele><time>2026-04-27T09:34:48.82Z</time></trkpt><trkpt lat="39.7852772226926" lon="8.740027194189302"><ele>780.5</ele><time>2026-04-27T09:34:49.82Z</time></trkpt><trkpt lat="39.78522130395616" lon="8.73995914277439"><ele>781.6666666666666</ele><time>2026-04-27T09:34:50.82Z</time></trkpt><trkpt lat="39.78516387295872" lon="8.739904613533183"><ele>782.8333333333333</ele><time>2026-04-27T09:34:51.82Z</time></trkpt><trkpt lat="39.785084182853346" lon="8.739851577823536"><ele>784.0</ele><time>2026-04-27T09:34:52.82Z</time></trkpt><trkpt lat="39.784996251290636" lon="8.73982465884426"><ele>784.0</ele><time>2026-04-27T09:34:53.82Z</time></trkpt><trkpt lat="39.78490153126157" lon="8.739815227274205"><ele>784.0</ele><time>2026-04-27T09:34:54.82Z</time></trkpt><trkpt lat="39.78479768165905" lon="8.739810352172695"><ele>784.0</ele><time>2026-04-27T09:34:55.82Z</time></trkpt><trkpt lat="39.78469898546196" lon="8.739806076013911"><ele>784.0</ele><time>2026-04-27T09:34:56.82Z</time></trkpt><trkpt lat="39.78460171121069" lon="8.739796799158764"><ele>784.0</ele><time>2026-04-27T09:34:57.82Z</time></trkpt><trkpt lat="39.78450140301342" lon="8.739800958270912"><ele>784.0</ele><time>2026-04-27T09:34:58.82Z</time></trkpt><trkpt lat="39.78439673950934" lon="8.739821529015597"><ele>784.0</ele><time>2026-04-27T09:34:59.82Z</time></trkpt><trkpt lat="39.78429446596049" lon="8.73985354325033"><ele>784.0</ele><time>2026-04-27T09:35:00.82Z</time></trkpt><trkpt lat="39.784192327816974" lon="8.739891166740342"><ele>784.0</ele><time>2026-04-27T09:35:01.82Z</time></trkpt><trkpt lat="39.78409202809343" lon="8.739929886038405"><ele>784.0</ele><time>2026-04-27T09:35:02.82Z</time></trkpt><trkpt lat="39.7839863408006" lon="8.739981677372276"><ele>783.5</ele><time>2026-04-27T09:35:03.82Z</time></trkpt><trkpt lat="39.78387959206778" lon="8.740045673301259"><ele>783.0</ele><time>2026-04-27T09:35:04.82Z</time></trkpt><trkpt lat="39.78377868397404" lon="8.740114307538814"><ele>782.5</ele><time>2026-04-27T09:35:05.82Z</time></trkpt><trkpt lat="39.783671615969354" lon="8.74018527492288"><ele>782.0</ele><time>2026-04-27T09:35:06.82Z</time></trkpt><trkpt lat="39.78356183314979" lon="8.740253577254393"><ele>782.75</ele><time>2026-04-27T09:35:07.82Z</time></trkpt><trkpt lat="39.78344675788691" lon="8.740318006110021"><ele>783.5</ele><time>2026-04-27T09:35:08.82Z</time></trkpt><trkpt lat="39.78332961871671" lon="8.740392608871328"><ele>784.25</ele><time>2026-04-27T09:35:09.82Z</time></trkpt><trkpt lat="39.783215960155985" lon="8.740452190952412"><ele>785.0</ele><time>2026-04-27T09:35:10.82Z</time></trkpt><trkpt lat="39.78310342048186" lon="8.740510171009971"><ele>785.0</ele><time>2026-04-27T09:35:11.82Z</time></trkpt><trkpt lat="39.78299455358579" lon="8.740563196289337"><ele>785.0</ele><time>2026-04-27T09:35:12.82Z</time></trkpt><trkpt lat="39.782912174167095" lon="8.740639579201723"><ele>785.0</ele><time>2026-04-27T09:35:13.82Z</time></trkpt><trkpt lat="39.78282864770973" lon="8.740715771264123"><ele>785.0</ele><time>2026-04-27T09:35:14.82Z</time></trkpt><trkpt lat="39.78276466472207" lon="8.740793577444009"><ele>785.0</ele><time>2026-04-27T09:35:15.82Z</time></trkpt><trkpt lat="39.782707704354095" lon="8.740887601743408"><ele>784.6</ele><time>2026-04-27T09:35:16.82Z</time></trkpt><trkpt lat="39.782661126256016" lon="8.741005355910474"><ele>784.2</ele><time>2026-04-27T09:35:17.82Z</time></trkpt><trkpt lat="39.78262375632576" lon="8.741105129007689"><ele>783.8</ele><time>2026-04-27T09:35:18.82Z</time></trkpt><trkpt lat="39.78257669011953" lon="8.741232607610584"><ele>783.4</ele><time>2026-04-27T09:35:19.82Z</time></trkpt><trkpt lat="39.78256181597773" lon="8.741361868639444"><ele>783.0</ele><time>2026-04-27T09:35:20.819Z</time></trkpt><trkpt lat="39.782549397571735" lon="8.741476282791592"><ele>783.0</ele><time>2026-04-27T09:35:21.819Z</time></trkpt><trkpt lat="39.782550758077626" lon="8.7416314265756"><ele>783.0</ele><time>2026-04-27T09:35:22.819Z</time></trkpt><trkpt lat="39.78256389618527" lon="8.741790147912177"><ele>783.0</ele><time>2026-04-27T09:35:23.819Z</time></trkpt><trkpt lat="39.782553921862174" lon="8.741937766417012"><ele>783.0</ele><time>2026-04-27T09:35:24.819Z</time></trkpt><trkpt lat="39.78255499078619" lon="8.742061097890064"><ele>782.5</ele><time>2026-04-27T09:35:25.819Z</time></trkpt><trkpt lat="39.782565691097936" lon="8.742177106009905"><ele>782.0</ele><time>2026-04-27T09:35:26.819Z</time></trkpt><trkpt lat="39.78256064784785" lon="8.74228690393076"><ele>781.5</ele><time>2026-04-27T09:35:27.819Z</time></trkpt><trkpt lat="39.78252543243882" lon="8.74237769344246"><ele>781.0</ele><time>2026-04-27T09:35:29.819Z</time></trkpt><trkpt lat="39.782428996337025" lon="8.742412036739221"><ele>780.5</ele><time>2026-04-27T09:35:31.819Z</time></trkpt><trkpt lat="39.78236079955847" lon="8.742424049834037"><ele>780.0</ele><time>2026-04-27T09:35:32.819Z</time></trkpt><trkpt lat="39.78229865905791" lon="8.742466186209988"><ele>780.0</ele><time>2026-04-27T09:35:33.819Z</time></trkpt><trkpt lat="39.7822430538153" lon="8.742516879680181"><ele>780.0</ele><time>2026-04-27T09:35:34.819Z</time></trkpt><trkpt lat="39.782183910881024" lon="8.742603970910311"><ele>780.0</ele><time>2026-04-27T09:35:35.819Z</time></trkpt><trkpt lat="39.78211459621166" lon="8.742697361080033"><ele>780.0</ele><time>2026-04-27T09:35:36.819Z</time></trkpt><trkpt lat="39.78204240559084" lon="8.742797175763426"><ele>780.0</ele><time>2026-04-27T09:35:37.819Z</time></trkpt><trkpt lat="39.78196309358797" lon="8.742899483589698"><ele>779.5</ele><time>2026-04-27T09:35:38.819Z</time></trkpt><trkpt lat="39.781882205396464" lon="8.743020061444781"><ele>779.0</ele><time>2026-04-27T09:35:39.819Z</time></trkpt><trkpt lat="39.781803626256945" lon="8.743142373434473"><ele>778.5</ele><time>2026-04-27T09:35:40.819Z</time></trkpt><trkpt lat="39.781729521576146" lon="8.743260592450715"><ele>778.0</ele><time>2026-04-27T09:35:41.819Z</time></trkpt><trkpt lat="39.78165244620338" lon="8.743371396714847"><ele>778.8</ele><time>2026-04-27T09:35:42.819Z</time></trkpt><trkpt lat="39.78156858012212" lon="8.743458644081619"><ele>779.5999999999999</ele><time>2026-04-27T09:35:43.819Z</time></trkpt><trkpt lat="39.78150804847186" lon="8.743575414246378"><ele>780.4000000000001</ele><time>2026-04-27T09:35:44.819Z</time></trkpt><trkpt lat="39.781429413713106" lon="8.743676527288333"><ele>781.2</ele><time>2026-04-27T09:35:45.819Z</time></trkpt><trkpt lat="39.78135345837679" lon="8.743785139047286"><ele>782.0</ele><time>2026-04-27T09:35:46.819Z</time></trkpt><trkpt lat="39.78126286796041" lon="8.743890078904641"><ele>782.0</ele><time>2026-04-27T09:35:47.819Z</time></trkpt><trkpt lat="39.781185218624145" lon="8.743999428213717"><ele>782.0</ele><time>2026-04-27T09:35:48.819Z</time></trkpt><trkpt lat="39.78110658637581" lon="8.744110162164105"><ele>782.0</ele><time>2026-04-27T09:35:49.819Z</time></trkpt><trkpt lat="39.7810410336565" lon="8.744234852834484"><ele>782.0</ele><time>2026-04-27T09:35:50.819Z</time></trkpt><trkpt lat="39.780965288812766" lon="8.7443272119072"><ele>784.2</ele><time>2026-04-27T09:35:51.819Z</time></trkpt><trkpt lat="39.78089864393025" lon="8.74442756700802"><ele>786.4000000000001</ele><time>2026-04-27T09:35:52.819Z</time></trkpt><trkpt lat="39.78083242480092" lon="8.744525748997999"><ele>788.5999999999999</ele><time>2026-04-27T09:35:53.819Z</time></trkpt><trkpt lat="39.78076556234985" lon="8.744596656898132"><ele>790.8</ele><time>2026-04-27T09:35:54.819Z</time></trkpt><trkpt lat="39.78070266029453" lon="8.74468644839215"><ele>793.0</ele><time>2026-04-27T09:35:55.819Z</time></trkpt><trkpt lat="39.78065051355805" lon="8.74476088675611"><ele>793.0</ele><time>2026-04-27T09:35:56.819Z</time></trkpt><trkpt lat="39.78059712937143" lon="8.744864975646744"><ele>793.0</ele><time>2026-04-27T09:35:57.819Z</time></trkpt><trkpt lat="39.78053780711332" lon="8.744946060206514"><ele>793.0</ele><time>2026-04-27T09:35:58.819Z</time></trkpt><trkpt lat="39.78046841996279" lon="8.745021684050021"><ele>793.0</ele><time>2026-04-27T09:35:59.819Z</time></trkpt><trkpt lat="39.78038824531918" lon="8.745137514643922"><ele>793.0</ele><time>2026-04-27T09:36:00.817Z</time></trkpt><trkpt lat="39.780305287524214" lon="8.74525831275496"><ele>793.25</ele><time>2026-04-27T09:36:01.817Z</time></trkpt><trkpt lat="39.780239410023796" lon="8.745385273062947"><ele>793.5</ele><time>2026-04-27T09:36:02.817Z</time></trkpt><trkpt lat="39.78015864302074" lon="8.745496652469706"><ele>793.75</ele><time>2026-04-27T09:36:03.817Z</time></trkpt><trkpt lat="39.780072476787005" lon="8.745607364333813"><ele>794.0</ele><time>2026-04-27T09:36:04.817Z</time></trkpt><trkpt lat="39.779973156841486" lon="8.745706544523731"><ele>794.8333333333334</ele><time>2026-04-27T09:36:05.817Z</time></trkpt><trkpt lat="39.77988591454301" lon="8.745811587443265"><ele>795.6666666666667</ele><time>2026-04-27T09:36:06.817Z</time></trkpt><trkpt lat="39.779821792705" lon="8.745888792516023"><ele>796.5</ele><time>2026-04-27T09:36:07.817Z</time></trkpt><trkpt lat="39.77976336908492" lon="8.745959136586315"><ele>797.3333333333333</ele><time>2026-04-27T09:36:08.817Z</time></trkpt><trkpt lat="39.77971948316186" lon="8.746022282752447"><ele>798.1666666666666</ele><time>2026-04-27T09:36:09.817Z</time></trkpt><trkpt lat="39.77969810303076" lon="8.746099700310916"><ele>799.0</ele><time>2026-04-27T09:36:10.817Z</time></trkpt><trkpt lat="39.77962498523399" lon="8.74613584465766"><ele>799.1666666666666</ele><time>2026-04-27T09:36:12.816Z</time></trkpt><trkpt lat="39.77952177753417" lon="8.746141771293278"><ele>799.3333333333333</ele><time>2026-04-27T09:36:14.816Z</time></trkpt><trkpt lat="39.77946097573225" lon="8.746165539739378"><ele>799.5</ele><time>2026-04-27T09:36:15.816Z</time></trkpt><trkpt lat="39.77938724304531" lon="8.74618870282966"><ele>799.6666666666667</ele><time>2026-04-27T09:36:16.816Z</time></trkpt><trkpt lat="39.779305607173114" lon="8.746187214334913"><ele>799.8333333333334</ele><time>2026-04-27T09:36:17.816Z</time></trkpt><trkpt lat="39.779228577498635" lon="8.746166055722085"><ele>800.0</ele><time>2026-04-27T09:36:18.816Z</time></trkpt><trkpt lat="39.77914899514074" lon="8.746139522215817"><ele>800.0000000000001</ele><time>2026-04-27T09:36:19.816Z</time></trkpt><trkpt lat="39.779083843050444" lon="8.746102339001318"><ele>800.0</ele><time>2026-04-27T09:36:20.816Z</time></trkpt><trkpt lat="39.779013430357885" lon="8.746044710797232"><ele>800.0</ele><time>2026-04-27T09:36:21.816Z</time></trkpt><trkpt lat="39.77895778300956" lon="8.745982388614468"><ele>800.0</ele><time>2026-04-27T09:36:22.816Z</time></trkpt><trkpt lat="39.77889594610143" lon="8.745925202475915"><ele>800.0000000000001</ele><time>2026-04-27T09:36:23.816Z</time></trkpt><trkpt lat="39.778830333930216" lon="8.745876168474819"><ele>800.0</ele><time>2026-04-27T09:36:24.816Z</time></trkpt><trkpt lat="39.778742619596464" lon="8.745826539579342"><ele>799.4285714285714</ele><time>2026-04-27T09:36:26.816Z</time></trkpt><trkpt lat="39.7786817639248" lon="8.745772487111648"><ele>798.8571428571429</ele><time>2026-04-27T09:36:29.816Z</time></trkpt><trkpt lat="39.77861802599535" lon="8.745762592945045"><ele>798.2857142857142</ele><time>2026-04-27T09:36:32.816Z</time></trkpt><trkpt lat="39.778544666372376" lon="8.74571597445708"><ele>797.7142857142858</ele><time>2026-04-27T09:36:37.816Z</time></trkpt><trkpt lat="39.7784814592147" lon="8.745737017449704"><ele>797.1428571428571</ele><time>2026-04-27T09:36:50.816Z</time></trkpt><trkpt lat="39.77840994495025" lon="8.745772655438074"><ele>796.5714285714286</ele><time>2026-04-27T09:38:22.812Z</time></trkpt><trkpt lat="39.77837012497133" lon="8.745837528443326"><ele>796.0</ele><time>2026-04-27T09:38:25.812Z</time></trkpt><trkpt lat="39.778311117471375" lon="8.745926131895828"><ele>794.5999999999999</ele><time>2026-04-27T09:38:42.812Z</time></trkpt><trkpt lat="39.77826712434956" lon="8.745993160683259"><ele>793.2</ele><time>2026-04-27T09:38:44.812Z</time></trkpt><trkpt lat="39.77822337420938" lon="8.746068173239161"><ele>791.8</ele><time>2026-04-27T09:38:46.812Z</time></trkpt><trkpt lat="39.77814978010446" lon="8.746162838326564"><ele>790.4000000000001</ele><time>2026-04-27T09:38:48.812Z</time></trkpt><trkpt lat="39.77806045009463" lon="8.746244806042641"><ele>789.0</ele><time>2026-04-27T09:38:50.812Z</time></trkpt><trkpt lat="39.77796171885266" lon="8.746301515078258"><ele>789.0</ele><time>2026-04-27T09:38:52.812Z</time></trkpt><trkpt lat="39.7778743145407" lon="8.746376015939004"><ele>789.0</ele><time>2026-04-27T09:38:54.812Z</time></trkpt><trkpt lat="39.77779257403947" lon="8.746477221287671"><ele>789.0</ele><time>2026-04-27T09:38:56.812Z</time></trkpt><trkpt lat="39.77768169818321" lon="8.746520833711383"><ele>789.0</ele><time>2026-04-27T09:38:58.812Z</time></trkpt><trkpt lat="39.77761905298911" lon="8.746547324977351"><ele>789.0</ele><time>2026-04-27T09:38:59.812Z</time></trkpt><trkpt lat="39.77748879071803" lon="8.746592981651128"><ele>787.6666666666666</ele><time>2026-04-27T09:39:01.812Z</time></trkpt><trkpt lat="39.77741865617645" lon="8.74662741411886"><ele>786.3333333333333</ele><time>2026-04-27T09:39:02.812Z</time></trkpt><trkpt lat="39.777352337638646" lon="8.74666720093995"><ele>785.0</ele><time>2026-04-27T09:39:03.812Z</time></trkpt><trkpt lat="39.77728822425497" lon="8.746715001748232"><ele>783.6666666666666</ele><time>2026-04-27T09:39:04.812Z</time></trkpt><trkpt lat="39.77722419756757" lon="8.74676997176982"><ele>782.3333333333333</ele><time>2026-04-27T09:39:05.812Z</time></trkpt><trkpt lat="39.7771600787454" lon="8.746820445104085"><ele>781.0</ele><time>2026-04-27T09:39:06.811Z</time></trkpt><trkpt lat="39.777097632315424" lon="8.746883189839187"><ele>779.8333333333333</ele><time>2026-04-27T09:39:07.811Z</time></trkpt><trkpt lat="39.777035870920315" lon="8.746953908141956"><ele>778.6666666666666</ele><time>2026-04-27T09:39:08.811Z</time></trkpt><trkpt lat="39.77698441230065" lon="8.747043391774474"><ele>777.5</ele><time>2026-04-27T09:39:09.811Z</time></trkpt><trkpt lat="39.7769264386733" lon="8.747130845197281"><ele>776.3333333333333</ele><time>2026-04-27T09:39:10.811Z</time></trkpt><trkpt lat="39.77687392585911" lon="8.7471990989606"><ele>775.1666666666666</ele><time>2026-04-27T09:39:11.811Z</time></trkpt><trkpt lat="39.77681823947193" lon="8.74727913423144"><ele>774.0</ele><time>2026-04-27T09:39:12.811Z</time></trkpt><trkpt lat="39.776768287990556" lon="8.747341652326602"><ele>774.0</ele><time>2026-04-27T09:39:13.811Z</time></trkpt><trkpt lat="39.77671288268914" lon="8.74738175214042"><ele>774.0</ele><time>2026-04-27T09:39:14.811Z</time></trkpt><trkpt lat="39.77665373281308" lon="8.747416047323163"><ele>774.0</ele><time>2026-04-27T09:39:15.811Z</time></trkpt><trkpt lat="39.776588838707774" lon="8.747446383819234"><ele>774.0</ele><time>2026-04-27T09:39:16.811Z</time></trkpt><trkpt lat="39.77645576262925" lon="8.747494079507574"><ele>774.0</ele><time>2026-04-27T09:39:18.811Z</time></trkpt><trkpt lat="39.77637644457575" lon="8.747524752780667"><ele>774.0</ele><time>2026-04-27T09:39:19.811Z</time></trkpt><trkpt lat="39.77631360126194" lon="8.747540908368666"><ele>774.0</ele><time>2026-04-27T09:39:20.811Z</time></trkpt><trkpt lat="39.776247738766514" lon="8.74754897997861"><ele>774.0</ele><time>2026-04-27T09:39:21.811Z</time></trkpt><trkpt lat="39.77614205967138" lon="8.74756726383922"><ele>774.0</ele><time>2026-04-27T09:39:23.811Z</time></trkpt><trkpt lat="39.77604796428155" lon="8.747605605365464"><ele>774.0</ele><time>2026-04-27T09:39:25.811Z</time></trkpt><trkpt lat="39.775943325861554" lon="8.74766166852625"><ele>774.0</ele><time>2026-04-27T09:39:27.811Z</time></trkpt><trkpt lat="39.77582714167676" lon="8.747620604139529"><ele>772.6</ele><time>2026-04-27T09:39:29.811Z</time></trkpt><trkpt lat="39.775767350769186" lon="8.747576936318234"><ele>771.2</ele><time>2026-04-27T09:39:30.811Z</time></trkpt><trkpt lat="39.77565602944882" lon="8.747514490075089"><ele>769.8000000000001</ele><time>2026-04-27T09:39:32.811Z</time></trkpt><trkpt lat="39.775546214657275" lon="8.747462362776448"><ele>768.4000000000001</ele><time>2026-04-27T09:39:34.811Z</time></trkpt><trkpt lat="39.7754765500834" lon="8.747432644133053"><ele>767.0</ele><time>2026-04-27T09:39:35.811Z</time></trkpt><trkpt lat="39.77536292173264" lon="8.747395645589494"><ele>767.0</ele><time>2026-04-27T09:39:37.811Z</time></trkpt><trkpt lat="39.77525860815235" lon="8.747437388966514"><ele>767.0</ele><time>2026-04-27T09:39:39.811Z</time></trkpt><trkpt lat="39.77519445675622" lon="8.747482364370876"><ele>767.0</ele><time>2026-04-27T09:39:40.811Z</time></trkpt><trkpt lat="39.77512305205059" lon="8.74752365992208"><ele>767.0</ele><time>2026-04-27T09:39:41.811Z</time></trkpt><trkpt lat="39.77504465528719" lon="8.747564709891439"><ele>767.0</ele><time>2026-04-27T09:39:42.811Z</time></trkpt><trkpt lat="39.774971806047304" lon="8.74758685377779"><ele>767.0</ele><time>2026-04-27T09:39:43.811Z</time></trkpt><trkpt lat="39.774898146536394" lon="8.747604947203198"><ele>765.5</ele><time>2026-04-27T09:39:44.811Z</time></trkpt><trkpt lat="39.774825818604796" lon="8.747635528490374"><ele>764.0</ele><time>2026-04-27T09:39:45.811Z</time></trkpt><trkpt lat="39.774719002590075" lon="8.74771022350073"><ele>762.5</ele><time>2026-04-27T09:39:47.811Z</time></trkpt><trkpt lat="39.77466066567716" lon="8.747758418442386"><ele>761.0</ele><time>2026-04-27T09:39:48.811Z</time></trkpt><trkpt lat="39.77460009046666" lon="8.74781728273921"><ele>759.5</ele><time>2026-04-27T09:39:49.811Z</time></trkpt><trkpt lat="39.77454223793682" lon="8.747870602102838"><ele>758.0</ele><time>2026-04-27T09:39:50.811Z</time></trkpt><trkpt lat="39.77447917934525" lon="8.747920544679895"><ele>757.0</ele><time>2026-04-27T09:39:51.81Z</time></trkpt><trkpt lat="39.77441146805758" lon="8.747970907698573"><ele>756.0</ele><time>2026-04-27T09:39:52.81Z</time></trkpt><trkpt lat="39.7743419758376" lon="8.74801341241648"><ele>755.0</ele><time>2026-04-27T09:39:53.81Z</time></trkpt><trkpt lat="39.774272558052544" lon="8.748027886617763"><ele>754.0</ele><time>2026-04-27T09:39:54.81Z</time></trkpt><trkpt lat="39.774183947843035" lon="8.748038011787255"><ele>753.0</ele><time>2026-04-27T09:39:55.81Z</time></trkpt><trkpt lat="39.77409228697496" lon="8.748047787527621"><ele>752.0</ele><time>2026-04-27T09:39:56.81Z</time></trkpt><trkpt lat="39.77399056465751" lon="8.748042364858811"><ele>751.0</ele><time>2026-04-27T09:39:57.81Z</time></trkpt><trkpt lat="39.77387681955293" lon="8.74804088863605"><ele>750.0</ele><time>2026-04-27T09:39:58.81Z</time></trkpt><trkpt lat="39.77376895301115" lon="8.748035433607686"><ele>749.0</ele><time>2026-04-27T09:39:59.81Z</time></trkpt><trkpt lat="39.773657761423536" lon="8.74805420046686"><ele>748.0</ele><time>2026-04-27T09:40:00.81Z</time></trkpt><trkpt lat="39.77354342760121" lon="8.748051953519349"><ele>747.0</ele><time>2026-04-27T09:40:01.81Z</time></trkpt><trkpt lat="39.773436328094064" lon="8.748076861970134"><ele>747.0</ele><time>2026-04-27T09:40:02.81Z</time></trkpt><trkpt lat="39.77333691147264" lon="8.748105028081605"><ele>747.0</ele><time>2026-04-27T09:40:03.81Z</time></trkpt><trkpt lat="39.77323696464842" lon="8.748153399874104"><ele>747.0</ele><time>2026-04-27T09:40:04.81Z</time></trkpt><trkpt lat="39.77312802247462" lon="8.748203923046058"><ele>747.0</ele><time>2026-04-27T09:40:05.81Z</time></trkpt><trkpt lat="39.77300844816612" lon="8.748220696573139"><ele>747.0</ele><time>2026-04-27T09:40:06.81Z</time></trkpt><trkpt lat="39.77288438993273" lon="8.748228773491007"><ele>747.0</ele><time>2026-04-27T09:40:07.81Z</time></trkpt><trkpt lat="39.77276313980129" lon="8.748241950709687"><ele>747.0</ele><time>2026-04-27T09:40:08.81Z</time></trkpt><trkpt lat="39.77264756614047" lon="8.748237623108352"><ele>747.0</ele><time>2026-04-27T09:40:09.81Z</time></trkpt><trkpt lat="39.772554838858234" lon="8.748276651428313"><ele>747.0</ele><time>2026-04-27T09:40:10.81Z</time></trkpt><trkpt lat="39.7724655205839" lon="8.7483014265316"><ele>747.0</ele><time>2026-04-27T09:40:11.81Z</time></trkpt><trkpt lat="39.7723619972133" lon="8.748351682614569"><ele>747.5</ele><time>2026-04-27T09:40:12.809Z</time></trkpt><trkpt lat="39.77227260343816" lon="8.74840401699414"><ele>748.0</ele><time>2026-04-27T09:40:13.81Z</time></trkpt><trkpt lat="39.772149042701" lon="8.748452815678874"><ele>748.5</ele><time>2026-04-27T09:40:14.809Z</time></trkpt><trkpt lat="39.77203270001167" lon="8.748474975060192"><ele>749.0</ele><time>2026-04-27T09:40:15.81Z</time></trkpt><trkpt lat="39.77191208277982" lon="8.748508611820661"><ele>748.75</ele><time>2026-04-27T09:40:16.81Z</time></trkpt><trkpt lat="39.771800684713156" lon="8.748508659602395"><ele>748.5</ele><time>2026-04-27T09:40:17.81Z</time></trkpt><trkpt lat="39.77168524414731" lon="8.748535133274522"><ele>748.25</ele><time>2026-04-27T09:40:18.809Z</time></trkpt><trkpt lat="39.77157812273641" lon="8.748579959446644"><ele>748.0</ele><time>2026-04-27T09:40:19.809Z</time></trkpt><trkpt lat="39.771455427076205" lon="8.748649186327205"><ele>745.0</ele><time>2026-04-27T09:40:20.809Z</time></trkpt><trkpt lat="39.77133884571235" lon="8.748722126718844"><ele>742.0</ele><time>2026-04-27T09:40:21.809Z</time></trkpt><trkpt lat="39.77123063160443" lon="8.74879577270031"><ele>739.0</ele><time>2026-04-27T09:40:22.809Z</time></trkpt><trkpt lat="39.77112078234952" lon="8.748871383263719"><ele>736.0</ele><time>2026-04-27T09:40:23.809Z</time></trkpt><trkpt lat="39.771025260753795" lon="8.748941110577976"><ele>736.75</ele><time>2026-04-27T09:40:24.809Z</time></trkpt><trkpt lat="39.77093190390651" lon="8.74901199821285"><ele>737.5</ele><time>2026-04-27T09:40:25.809Z</time></trkpt><trkpt lat="39.77083989116796" lon="8.749103717443377"><ele>738.25</ele><time>2026-04-27T09:40:26.809Z</time></trkpt><trkpt lat="39.770730289781866" lon="8.749180561660792"><ele>739.0</ele><time>2026-04-27T09:40:27.809Z</time></trkpt><trkpt lat="39.770604800945804" lon="8.749248496718288"><ele>739.0</ele><time>2026-04-27T09:40:28.809Z</time></trkpt><trkpt lat="39.77048872207811" lon="8.749319834424231"><ele>739.0</ele><time>2026-04-27T09:40:29.809Z</time></trkpt><trkpt lat="39.770377998276764" lon="8.749384274287808"><ele>739.0</ele><time>2026-04-27T09:40:30.809Z</time></trkpt><trkpt lat="39.77026927015614" lon="8.749444168672827"><ele>739.0</ele><time>2026-04-27T09:40:31.809Z</time></trkpt><trkpt lat="39.77017457721539" lon="8.749526299388215"><ele>737.0</ele><time>2026-04-27T09:40:32.809Z</time></trkpt><trkpt lat="39.770086676753294" lon="8.749601917514738"><ele>735.0</ele><time>2026-04-27T09:40:33.809Z</time></trkpt><trkpt lat="39.770042720017344" lon="8.74970022250451"><ele>733.0</ele><time>2026-04-27T09:40:34.809Z</time></trkpt><trkpt lat="39.770167543516074" lon="8.749527321081237"><ele>731.0</ele><time>2026-04-27T09:40:35.809Z</time></trkpt><trkpt lat="39.770081872601274" lon="8.749657712714257"><ele>731.0</ele><time>2026-04-27T09:41:05.808Z</time></trkpt><trkpt lat="39.77004928633986" lon="8.749733518384359"><ele>731.0</ele><time>2026-04-27T09:41:06.808Z</time></trkpt><trkpt lat="39.76999140063635" lon="8.74986628246585"><ele>731.0</ele><time>2026-04-27T09:41:08.808Z</time></trkpt><trkpt lat="39.76995733961293" lon="8.749972032985921"><ele>731.0</ele><time>2026-04-27T09:41:09.808Z</time></trkpt><trkpt lat="39.769932040918725" lon="8.750091557371316"><ele>731.0</ele><time>2026-04-27T09:41:10.808Z</time></trkpt><trkpt lat="39.76989084075185" lon="8.75023432969049"><ele>728.5</ele><time>2026-04-27T09:41:11.808Z</time></trkpt><trkpt lat="39.76983159696111" lon="8.750377556792309"><ele>726.0</ele><time>2026-04-27T09:41:12.808Z</time></trkpt><trkpt lat="39.769802107427545" lon="8.750534519755252"><ele>723.5</ele><time>2026-04-27T09:41:13.808Z</time></trkpt><trkpt lat="39.76975269488156" lon="8.750674049442528"><ele>721.0</ele><time>2026-04-27T09:41:14.808Z</time></trkpt><trkpt lat="39.76971394887067" lon="8.750808374058925"><ele>721.0</ele><time>2026-04-27T09:41:15.808Z</time></trkpt><trkpt lat="39.76966177170784" lon="8.750951571909704"><ele>721.0</ele><time>2026-04-27T09:41:16.808Z</time></trkpt><trkpt lat="39.76962704174931" lon="8.751101409140608"><ele>721.0</ele><time>2026-04-27T09:41:17.808Z</time></trkpt><trkpt lat="39.76960548811303" lon="8.75122547428135"><ele>721.0</ele><time>2026-04-27T09:41:18.808Z</time></trkpt><trkpt lat="39.769595962378325" lon="8.751334495782826"><ele>721.0</ele><time>2026-04-27T09:41:19.808Z</time></trkpt><trkpt lat="39.769541335097976" lon="8.751439918030743"><ele>720.5999999999999</ele><time>2026-04-27T09:41:20.808Z</time></trkpt><trkpt lat="39.769481986600304" lon="8.751540997474374"><ele>720.2</ele><time>2026-04-27T09:41:21.807Z</time></trkpt><trkpt lat="39.76941963539541" lon="8.751636426507194"><ele>719.8</ele><time>2026-04-27T09:41:22.807Z</time></trkpt><trkpt lat="39.76936850220496" lon="8.751731848844477"><ele>719.4000000000001</ele><time>2026-04-27T09:41:23.807Z</time></trkpt><trkpt lat="39.76930650551914" lon="8.751810049502676"><ele>719.0</ele><time>2026-04-27T09:41:24.807Z</time></trkpt><trkpt lat="39.76924692870791" lon="8.751898118306443"><ele>718.3333333333333</ele><time>2026-04-27T09:41:25.807Z</time></trkpt><trkpt lat="39.769188714317295" lon="8.751997109642442"><ele>717.6666666666666</ele><time>2026-04-27T09:41:26.807Z</time></trkpt><trkpt lat="39.76912358075549" lon="8.752077739963617"><ele>717.0</ele><time>2026-04-27T09:41:27.807Z</time></trkpt><trkpt lat="39.769088831886805" lon="8.752175031230795"><ele>716.3333333333334</ele><time>2026-04-27T09:41:28.807Z</time></trkpt><trkpt lat="39.769048225194474" lon="8.752260947694392"><ele>715.6666666666667</ele><time>2026-04-27T09:41:29.807Z</time></trkpt><trkpt lat="39.76900916337239" lon="8.7523614427404"><ele>715.0</ele><time>2026-04-27T09:41:30.807Z</time></trkpt><trkpt lat="39.768988032553246" lon="8.752475650645737"><ele>715.0</ele><time>2026-04-27T09:41:31.807Z</time></trkpt><trkpt lat="39.76896765342441" lon="8.752584546359268"><ele>715.0</ele><time>2026-04-27T09:41:32.807Z</time></trkpt><trkpt lat="39.76894877386177" lon="8.75269684950047"><ele>715.0</ele><time>2026-04-27T09:41:33.807Z</time></trkpt><trkpt lat="39.76893163991316" lon="8.752811670395637"><ele>715.0</ele><time>2026-04-27T09:41:34.807Z</time></trkpt><trkpt lat="39.76891247914267" lon="8.752931722793528"><ele>715.0</ele><time>2026-04-27T09:41:35.807Z</time></trkpt><trkpt lat="39.76888434280607" lon="8.753062257041226"><ele>713.6</ele><time>2026-04-27T09:41:36.807Z</time></trkpt><trkpt lat="39.76884573409483" lon="8.753194512022972"><ele>712.2</ele><time>2026-04-27T09:41:37.807Z</time></trkpt><trkpt lat="39.76878737732235" lon="8.753318649922264"><ele>710.8</ele><time>2026-04-27T09:41:38.807Z</time></trkpt><trkpt lat="39.768760029073604" lon="8.753449010184339"><ele>709.4</ele><time>2026-04-27T09:41:39.807Z</time></trkpt><trkpt lat="39.76874115144626" lon="8.753557147517592"><ele>708.0</ele><time>2026-04-27T09:41:40.807Z</time></trkpt><trkpt lat="39.768742762672574" lon="8.753670049836577"><ele>706.5999999999999</ele><time>2026-04-27T09:41:41.807Z</time></trkpt><trkpt lat="39.768771278370245" lon="8.753795752862228"><ele>705.1999999999999</ele><time>2026-04-27T09:41:42.807Z</time></trkpt><trkpt lat="39.768807957261316" lon="8.753939405306898"><ele>703.8</ele><time>2026-04-27T09:41:43.807Z</time></trkpt><trkpt lat="39.76884616433641" lon="8.754082615871573"><ele>702.4</ele><time>2026-04-27T09:41:44.807Z</time></trkpt><trkpt lat="39.768863971336074" lon="8.754222969606586"><ele>701.0</ele><time>2026-04-27T09:41:45.807Z</time></trkpt><trkpt lat="39.76889087230852" lon="8.75434954516919"><ele>699.5999999999999</ele><time>2026-04-27T09:41:46.807Z</time></trkpt><trkpt lat="39.7689433856756" lon="8.754480036747946"><ele>698.2</ele><time>2026-04-27T09:41:47.807Z</time></trkpt><trkpt lat="39.76902722855748" lon="8.754568663564703"><ele>696.8</ele><time>2026-04-27T09:41:48.807Z</time></trkpt><trkpt lat="39.76910239862611" lon="8.754664301492083"><ele>695.4000000000001</ele><time>2026-04-27T09:41:49.807Z</time></trkpt><trkpt lat="39.76917212553967" lon="8.754753830726678"><ele>694.0</ele><time>2026-04-27T09:41:50.807Z</time></trkpt><trkpt lat="39.76922392448711" lon="8.754854239987685"><ele>694.0</ele><time>2026-04-27T09:41:51.807Z</time></trkpt><trkpt lat="39.76923400631865" lon="8.754992946622389"><ele>694.0</ele><time>2026-04-27T09:41:52.807Z</time></trkpt><trkpt lat="39.769272862394025" lon="8.755135751509288"><ele>694.0</ele><time>2026-04-27T09:41:53.807Z</time></trkpt><trkpt lat="39.76933022551433" lon="8.755268147915553"><ele>694.0</ele><time>2026-04-27T09:41:54.807Z</time></trkpt><trkpt lat="39.76936338595343" lon="8.755403915755188"><ele>691.8000000000001</ele><time>2026-04-27T09:41:55.807Z</time></trkpt><trkpt lat="39.76941600257447" lon="8.755519316080777"><ele>689.6</ele><time>2026-04-27T09:41:56.807Z</time></trkpt><trkpt lat="39.769482612471805" lon="8.755614440679672"><ele>687.4</ele><time>2026-04-27T09:41:57.807Z</time></trkpt><trkpt lat="39.769569802973535" lon="8.755662620163617"><ele>685.2</ele><time>2026-04-27T09:41:58.807Z</time></trkpt><trkpt lat="39.7696601022984" lon="8.755721434834916"><ele>683.0</ele><time>2026-04-27T09:41:59.807Z</time></trkpt><trkpt lat="39.769754895447974" lon="8.755771109288595"><ele>683.0</ele><time>2026-04-27T09:42:00.807Z</time></trkpt><trkpt lat="39.76983434698235" lon="8.75582493535975"><ele>683.0</ele><time>2026-04-27T09:42:01.807Z</time></trkpt><trkpt lat="39.769883770568406" lon="8.755913506601228"><ele>683.0</ele><time>2026-04-27T09:42:02.807Z</time></trkpt><trkpt lat="39.7699227757124" lon="8.75600786659842"><ele>683.0</ele><time>2026-04-27T09:42:03.807Z</time></trkpt><trkpt lat="39.76994540778275" lon="8.756112189481382"><ele>683.0</ele><time>2026-04-27T09:42:04.807Z</time></trkpt><trkpt lat="39.76994033846663" lon="8.75623675986934"><ele>683.0</ele><time>2026-04-27T09:42:05.807Z</time></trkpt><trkpt lat="39.769895524244575" lon="8.756327711102061"><ele>681.2</ele><time>2026-04-27T09:42:06.806Z</time></trkpt><trkpt lat="39.76984735552635" lon="8.756416910499976"><ele>679.4</ele><time>2026-04-27T09:42:07.806Z</time></trkpt><trkpt lat="39.76979180260302" lon="8.756492994220803"><ele>677.6</ele><time>2026-04-27T09:42:08.806Z</time></trkpt><trkpt lat="39.76971752411268" lon="8.756571824702505"><ele>675.8000000000001</ele><time>2026-04-27T09:42:09.806Z</time></trkpt><trkpt lat="39.76963095513821" lon="8.756675233713437"><ele>674.0</ele><time>2026-04-27T09:42:10.806Z</time></trkpt><trkpt lat="39.76957632670972" lon="8.756785690380692"><ele>672.75</ele><time>2026-04-27T09:42:11.806Z</time></trkpt><trkpt lat="39.769509325953685" lon="8.75689344755713"><ele>671.5</ele><time>2026-04-27T09:42:12.806Z</time></trkpt><trkpt lat="39.76944438187464" lon="8.75704318893109"><ele>670.25</ele><time>2026-04-27T09:42:13.806Z</time></trkpt><trkpt lat="39.76940162883156" lon="8.757197415778375"><ele>669.0</ele><time>2026-04-27T09:42:14.806Z</time></trkpt><trkpt lat="39.769346238473254" lon="8.757364006263282"><ele>668.25</ele><time>2026-04-27T09:42:15.806Z</time></trkpt><trkpt lat="39.76929065089444" lon="8.757520914512405"><ele>667.5</ele><time>2026-04-27T09:42:16.806Z</time></trkpt><trkpt lat="39.76923685929235" lon="8.75767930026974"><ele>666.75</ele><time>2026-04-27T09:42:17.806Z</time></trkpt><trkpt lat="39.76918247435357" lon="8.757850057218816"><ele>666.0</ele><time>2026-04-27T09:42:18.806Z</time></trkpt><trkpt lat="39.769128931296265" lon="8.758022245240538"><ele>663.5</ele><time>2026-04-27T09:42:19.805Z</time></trkpt><trkpt lat="39.769071192576625" lon="8.758194459766028"><ele>661.0</ele><time>2026-04-27T09:42:20.805Z</time></trkpt><trkpt lat="39.769003509647284" lon="8.758359640220512"><ele>658.5</ele><time>2026-04-27T09:42:21.806Z</time></trkpt><trkpt lat="39.76890875901618" lon="8.75850608294677"><ele>656.0</ele><time>2026-04-27T09:42:22.805Z</time></trkpt><trkpt lat="39.7688226220494" lon="8.75865275197102"><ele>655.75</ele><time>2026-04-27T09:42:23.805Z</time></trkpt><trkpt lat="39.76874119064053" lon="8.75880987719351"><ele>655.5</ele><time>2026-04-27T09:42:24.805Z</time></trkpt><trkpt lat="39.76863778585301" lon="8.758952000561486"><ele>655.25</ele><time>2026-04-27T09:42:25.805Z</time></trkpt><trkpt lat="39.768535010069144" lon="8.759089440302787"><ele>655.0</ele><time>2026-04-27T09:42:26.805Z</time></trkpt><trkpt lat="39.76842283760756" lon="8.759231413990682"><ele>653.0</ele><time>2026-04-27T09:42:27.805Z</time></trkpt><trkpt lat="39.7683097115541" lon="8.759364512313912"><ele>651.0</ele><time>2026-04-27T09:42:28.806Z</time></trkpt><trkpt lat="39.76821151588031" lon="8.759506053498487"><ele>649.0</ele><time>2026-04-27T09:42:29.806Z</time></trkpt><trkpt lat="39.76811185898027" lon="8.759620106277122"><ele>647.0</ele><time>2026-04-27T09:42:30.805Z</time></trkpt><trkpt lat="39.768017287896406" lon="8.759753463534597"><ele>647.0</ele><time>2026-04-27T09:42:31.805Z</time></trkpt><trkpt lat="39.767937248824076" lon="8.759896157779766"><ele>647.0</ele><time>2026-04-27T09:42:32.805Z</time></trkpt><trkpt lat="39.7678666056311" lon="8.760042467375"><ele>647.0</ele><time>2026-04-27T09:42:33.805Z</time></trkpt><trkpt lat="39.76780985817814" lon="8.760198968089997"><ele>647.0</ele><time>2026-04-27T09:42:34.805Z</time></trkpt><trkpt lat="39.76775615510364" lon="8.760356019724886"><ele>646.5</ele><time>2026-04-27T09:42:35.805Z</time></trkpt><trkpt lat="39.76770799575655" lon="8.760511579267012"><ele>646.0</ele><time>2026-04-27T09:42:36.805Z</time></trkpt><trkpt lat="39.76765855586519" lon="8.76065506468268"><ele>645.5</ele><time>2026-04-27T09:42:37.805Z</time></trkpt><trkpt lat="39.76760981365946" lon="8.760803689029549"><ele>645.0</ele><time>2026-04-27T09:42:38.805Z</time></trkpt><trkpt lat="39.767559509749056" lon="8.760938017045765"><ele>643.0</ele><time>2026-04-27T09:42:39.805Z</time></trkpt><trkpt lat="39.76751282717196" lon="8.76106356523622"><ele>641.0</ele><time>2026-04-27T09:42:40.805Z</time></trkpt><trkpt lat="39.767463440700844" lon="8.76121513251321"><ele>639.0</ele><time>2026-04-27T09:42:41.805Z</time></trkpt><trkpt lat="39.767407158498756" lon="8.761348884435991"><ele>637.0</ele><time>2026-04-27T09:42:42.805Z</time></trkpt><trkpt lat="39.76735410489027" lon="8.76147778540908"><ele>637.0</ele><time>2026-04-27T09:42:43.805Z</time></trkpt><trkpt lat="39.76731903934393" lon="8.761609490458172"><ele>637.0</ele><time>2026-04-27T09:42:44.805Z</time></trkpt><trkpt lat="39.76731425110138" lon="8.761741655662332"><ele>637.0</ele><time>2026-04-27T09:42:45.805Z</time></trkpt><trkpt lat="39.76733793555345" lon="8.761862981921107"><ele>637.0</ele><time>2026-04-27T09:42:46.805Z</time></trkpt><trkpt lat="39.76736687840639" lon="8.761987835061518"><ele>637.0</ele><time>2026-04-27T09:42:47.804Z</time></trkpt><trkpt lat="39.76740594553282" lon="8.76210505838363"><ele>637.0</ele><time>2026-04-27T09:42:48.804Z</time></trkpt><trkpt lat="39.767435187661086" lon="8.762213977295067"><ele>637.0</ele><time>2026-04-27T09:42:49.804Z</time></trkpt><trkpt lat="39.767440523692564" lon="8.762321143176104"><ele>637.0</ele><time>2026-04-27T09:42:50.804Z</time></trkpt><trkpt lat="39.7674167570337" lon="8.762408560562884"><ele>637.0</ele><time>2026-04-27T09:42:51.804Z</time></trkpt><trkpt lat="39.76736810891956" lon="8.76247836156401"><ele>637.0</ele><time>2026-04-27T09:42:52.804Z</time></trkpt><trkpt lat="39.76729570085082" lon="8.76252388476546"><ele>637.0</ele><time>2026-04-27T09:42:53.804Z</time></trkpt><trkpt lat="39.767195558089" lon="8.762557254084932"><ele>637.0</ele><time>2026-04-27T09:42:54.804Z</time></trkpt><trkpt lat="39.76709978834663" lon="8.762614046549764"><ele>637.0</ele><time>2026-04-27T09:42:55.804Z</time></trkpt><trkpt lat="39.76697572136096" lon="8.762656929778236"><ele>637.0</ele><time>2026-04-27T09:42:56.804Z</time></trkpt><trkpt lat="39.76684318198892" lon="8.762716544252585"><ele>637.0</ele><time>2026-04-27T09:42:57.804Z</time></trkpt><trkpt lat="39.766707718546236" lon="8.762778940948362"><ele>635.0</ele><time>2026-04-27T09:42:58.804Z</time></trkpt><trkpt lat="39.76656333450779" lon="8.76284939372596"><ele>633.0</ele><time>2026-04-27T09:42:59.804Z</time></trkpt><trkpt lat="39.76642122578836" lon="8.762913229185097"><ele>631.0</ele><time>2026-04-27T09:43:00.804Z</time></trkpt><trkpt lat="39.766284925369554" lon="8.762968651159694"><ele>629.0</ele><time>2026-04-27T09:43:01.804Z</time></trkpt><trkpt lat="39.76615388750542" lon="8.76300742020867"><ele>629.0</ele><time>2026-04-27T09:43:02.804Z</time></trkpt><trkpt lat="39.766040217708095" lon="8.763003127792711"><ele>629.0</ele><time>2026-04-27T09:43:03.804Z</time></trkpt><trkpt lat="39.76594779838958" lon="8.762973688244873"><ele>629.0</ele><time>2026-04-27T09:43:04.804Z</time></trkpt><trkpt lat="39.765863743224116" lon="8.762908667083972"><ele>629.0</ele><time>2026-04-27T09:43:05.804Z</time></trkpt><trkpt lat="39.76575689174991" lon="8.76285019544791"><ele>629.0</ele><time>2026-04-27T09:43:06.804Z</time></trkpt><trkpt lat="39.76562168765795" lon="8.762806482161707"><ele>628.0</ele><time>2026-04-27T09:43:07.804Z</time></trkpt><trkpt lat="39.765487122877325" lon="8.762748527448787"><ele>627.0</ele><time>2026-04-27T09:43:08.804Z</time></trkpt><trkpt lat="39.765349316128884" lon="8.762686493438247"><ele>626.0</ele><time>2026-04-27T09:43:09.804Z</time></trkpt><trkpt lat="39.765212808329416" lon="8.76265197687357"><ele>625.0</ele><time>2026-04-27T09:43:10.804Z</time></trkpt><trkpt lat="39.765070280821796" lon="8.762613279717108"><ele>623.0</ele><time>2026-04-27T09:43:11.804Z</time></trkpt><trkpt lat="39.764932917650135" lon="8.76257256655288"><ele>621.0</ele><time>2026-04-27T09:43:12.804Z</time></trkpt><trkpt lat="39.76480375928584" lon="8.762515934433713"><ele>619.0</ele><time>2026-04-27T09:43:13.804Z</time></trkpt><trkpt lat="39.764668456857436" lon="8.762492677025412"><ele>617.0</ele><time>2026-04-27T09:43:14.804Z</time></trkpt><trkpt lat="39.764538275830645" lon="8.76250021543339"><ele>617.0</ele><time>2026-04-27T09:43:15.804Z</time></trkpt><trkpt lat="39.76440522764446" lon="8.76254932592729"><ele>617.0</ele><time>2026-04-27T09:43:16.804Z</time></trkpt><trkpt lat="39.76428648453269" lon="8.762573313764234"><ele>617.0</ele><time>2026-04-27T09:43:17.804Z</time></trkpt><trkpt lat="39.7641608154159" lon="8.762572958772967"><ele>617.0</ele><time>2026-04-27T09:43:18.804Z</time></trkpt><trkpt lat="39.76404368359008" lon="8.762561133676641"><ele>615.75</ele><time>2026-04-27T09:43:19.804Z</time></trkpt><trkpt lat="39.76393101817395" lon="8.762534240354356"><ele>614.5</ele><time>2026-04-27T09:43:20.804Z</time></trkpt><trkpt lat="39.763831469558326" lon="8.762453863985803"><ele>613.25</ele><time>2026-04-27T09:43:21.804Z</time></trkpt><trkpt lat="39.763715403012604" lon="8.762390384127439"><ele>612.0</ele><time>2026-04-27T09:43:22.804Z</time></trkpt><trkpt lat="39.76360964757061" lon="8.762281112465987"><ele>609.3333333333334</ele><time>2026-04-27T09:43:23.804Z</time></trkpt><trkpt lat="39.763479446704864" lon="8.762201719660773"><ele>606.6666666666667</ele><time>2026-04-27T09:43:24.804Z</time></trkpt><trkpt lat="39.763329838107346" lon="8.76216454218443"><ele>604.0</ele><time>2026-04-27T09:43:25.804Z</time></trkpt><trkpt lat="39.76317224743809" lon="8.762102102257954"><ele>604.0</ele><time>2026-04-27T09:43:26.804Z</time></trkpt><trkpt lat="39.76300284614678" lon="8.762042333426567"><ele>604.0</ele><time>2026-04-27T09:43:27.804Z</time></trkpt><trkpt lat="39.762818817356525" lon="8.761971196046183"><ele>604.0</ele><time>2026-04-27T09:43:28.804Z</time></trkpt><trkpt lat="39.762643070532306" lon="8.7619149262174"><ele>601.3333333333334</ele><time>2026-04-27T09:43:29.804Z</time></trkpt><trkpt lat="39.76247193904092" lon="8.761832709504338"><ele>598.6666666666666</ele><time>2026-04-27T09:43:30.804Z</time></trkpt><trkpt lat="39.762304177989506" lon="8.761769585585759"><ele>596.0</ele><time>2026-04-27T09:43:31.803Z</time></trkpt><trkpt lat="39.76214124694797" lon="8.761710591536131"><ele>596.0</ele><time>2026-04-27T09:43:32.803Z</time></trkpt><trkpt lat="39.76198994919789" lon="8.761660192852696"><ele>596.0</ele><time>2026-04-27T09:43:33.803Z</time></trkpt><trkpt lat="39.76188922818909" lon="8.761639663645195"><ele>596.0</ele><time>2026-04-27T09:43:34.803Z</time></trkpt><trkpt lat="39.76173290983137" lon="8.761576818839611"><ele>596.0</ele><time>2026-04-27T09:43:35.803Z</time></trkpt><trkpt lat="39.76157156895624" lon="8.761519910536997"><ele>594.6666666666666</ele><time>2026-04-27T09:43:36.803Z</time></trkpt><trkpt lat="39.76141455864787" lon="8.761467953149507"><ele>593.3333333333334</ele><time>2026-04-27T09:43:37.803Z</time></trkpt><trkpt lat="39.76126979957958" lon="8.76141761177729"><ele>592.0</ele><time>2026-04-27T09:43:38.803Z</time></trkpt><trkpt lat="39.76114842440653" lon="8.761331225647016"><ele>592.0</ele><time>2026-04-27T09:43:39.803Z</time></trkpt><trkpt lat="39.76103549103053" lon="8.761242407598772"><ele>592.0</ele><time>2026-04-27T09:43:40.803Z</time></trkpt><trkpt lat="39.76093877946812" lon="8.761135777916778"><ele>592.0</ele><time>2026-04-27T09:43:41.803Z</time></trkpt><trkpt lat="39.76084236495783" lon="8.76101334100648"><ele>592.0</ele><time>2026-04-27T09:43:42.803Z</time></trkpt><trkpt lat="39.760751024884556" lon="8.760877245560712"><ele>590.6</ele><time>2026-04-27T09:43:43.803Z</time></trkpt><trkpt lat="39.76065928639153" lon="8.760742278595249"><ele>589.2</ele><time>2026-04-27T09:43:44.803Z</time></trkpt><trkpt lat="39.760584849632316" lon="8.760640481212695"><ele>587.8</ele><time>2026-04-27T09:43:45.803Z</time></trkpt><trkpt lat="39.76052605733337" lon="8.760560078839093"><ele>586.4</ele><time>2026-04-27T09:43:46.803Z</time></trkpt><trkpt lat="39.76048486353851" lon="8.760487962037665"><ele>585.0</ele><time>2026-04-27T09:43:48.803Z</time></trkpt><trkpt lat="39.760585494014165" lon="8.76052801504116"><ele>585.0</ele><time>2026-04-27T09:43:50.803Z</time></trkpt><trkpt lat="39.76064673984361" lon="8.760503121011043"><ele>585.0</ele><time>2026-04-27T09:43:51.803Z</time></trkpt><trkpt lat="39.76072576939071" lon="8.760470614097425"><ele>585.0</ele><time>2026-04-27T09:43:52.803Z</time></trkpt><trkpt lat="39.7608184410552" lon="8.760432495762188"><ele>585.0</ele><time>2026-04-27T09:43:53.803Z</time></trkpt><trkpt lat="39.7609268660389" lon="8.760387897641953"><ele>585.0</ele><time>2026-04-27T09:43:54.803Z</time></trkpt><trkpt lat="39.76105095399645" lon="8.760337706249942"><ele>584.25</ele><time>2026-04-27T09:43:55.803Z</time></trkpt><trkpt lat="39.76117919413534" lon="8.760287497206516"><ele>583.5</ele><time>2026-04-27T09:43:56.803Z</time></trkpt><trkpt lat="39.761350667394076" lon="8.760224391686245"><ele>582.75</ele><time>2026-04-27T09:43:57.803Z</time></trkpt><trkpt lat="39.761476971597666" lon="8.760177745711296"><ele>582.0</ele><time>2026-04-27T09:43:58.803Z</time></trkpt><trkpt lat="39.761593737390086" lon="8.760133824127362"><ele>581.2</ele><time>2026-04-27T09:43:59.803Z</time></trkpt><trkpt lat="39.7617137337544" lon="8.760092129629433"><ele>580.4000000000001</ele><time>2026-04-27T09:44:00.803Z</time></trkpt><trkpt lat="39.761789344620986" lon="8.760057917501435"><ele>579.5999999999999</ele><time>2026-04-27T09:44:01.803Z</time></trkpt><trkpt lat="39.761845250567134" lon="8.760017848113218"><ele>578.8</ele><time>2026-04-27T09:44:02.803Z</time></trkpt><trkpt lat="39.761901678929895" lon="8.75991305542605"><ele>578.0</ele><time>2026-04-27T09:44:04.803Z</time></trkpt><trkpt lat="39.761918182380306" lon="8.75973262100366"><ele>578.0</ele><time>2026-04-27T09:44:06.803Z</time></trkpt><trkpt lat="39.76191118718496" lon="8.759628789428275"><ele>578.0</ele><time>2026-04-27T09:44:07.803Z</time></trkpt><trkpt lat="39.76189387306844" lon="8.759505503135935"><ele>578.0</ele><time>2026-04-27T09:44:08.803Z</time></trkpt><trkpt lat="39.76187174049205" lon="8.759371378553793"><ele>578.0</ele><time>2026-04-27T09:44:09.803Z</time></trkpt><trkpt lat="39.76184344467016" lon="8.75922950845662"><ele>578.0</ele><time>2026-04-27T09:44:10.803Z</time></trkpt><trkpt lat="39.761810102547415" lon="8.759069199084346"><ele>576.75</ele><time>2026-04-27T09:44:11.803Z</time></trkpt><trkpt lat="39.761774965048815" lon="8.758909037784184"><ele>575.5</ele><time>2026-04-27T09:44:12.803Z</time></trkpt><trkpt lat="39.76174019114465" lon="8.758760258980152"><ele>574.25</ele><time>2026-04-27T09:44:13.803Z</time></trkpt><trkpt lat="39.76168970494534" lon="8.758617836695459"><ele>573.0</ele><time>2026-04-27T09:44:14.803Z</time></trkpt><trkpt lat="39.76166338612509" lon="8.758458288743965"><ele>573.0</ele><time>2026-04-27T09:44:15.803Z</time></trkpt><trkpt lat="39.761628728283185" lon="8.758312722335615"><ele>573.0</ele><time>2026-04-27T09:44:16.802Z</time></trkpt><trkpt lat="39.7615838508981" lon="8.758185919279173"><ele>573.0</ele><time>2026-04-27T09:44:17.802Z</time></trkpt><trkpt lat="39.76154589417587" lon="8.758089088399611"><ele>573.0</ele><time>2026-04-27T09:44:18.802Z</time></trkpt><trkpt lat="39.7615052662358" lon="8.758021788235219"><ele>573.0</ele><time>2026-04-27T09:44:19.802Z</time></trkpt><trkpt lat="39.761406765492254" lon="8.757939459910139"><ele>573.0</ele><time>2026-04-27T09:44:21.802Z</time></trkpt><trkpt lat="39.76133216894838" lon="8.75789540697647"><ele>573.0</ele><time>2026-04-27T09:44:22.802Z</time></trkpt><trkpt lat="39.76123803403504" lon="8.757836750692755"><ele>573.0</ele><time>2026-04-27T09:44:23.802Z</time></trkpt><trkpt lat="39.7611514142698" lon="8.757783041118225"><ele>573.0</ele><time>2026-04-27T09:44:24.802Z</time></trkpt><trkpt lat="39.76106073064488" lon="8.757738547867971"><ele>573.0</ele><time>2026-04-27T09:44:25.801Z</time></trkpt><trkpt lat="39.760954656924056" lon="8.757715061429051"><ele>573.0</ele><time>2026-04-27T09:44:26.801Z</time></trkpt><trkpt lat="39.76085944131188" lon="8.757687089899594"><ele>573.0</ele><time>2026-04-27T09:44:27.801Z</time></trkpt><trkpt lat="39.76078657681296" lon="8.757602666823482"><ele>573.0</ele><time>2026-04-27T09:44:28.801Z</time></trkpt><trkpt lat="39.76072011293738" lon="8.757517322048162"><ele>573.0</ele><time>2026-04-27T09:44:29.801Z</time></trkpt><trkpt lat="39.760644719088724" lon="8.757426271806267"><ele>573.0</ele><time>2026-04-27T09:44:30.801Z</time></trkpt><trkpt lat="39.76054335585626" lon="8.75734556006874"><ele>573.0</ele><time>2026-04-27T09:44:31.801Z</time></trkpt><trkpt lat="39.7604501128396" lon="8.757253508739852"><ele>573.0</ele><time>2026-04-27T09:44:32.801Z</time></trkpt><trkpt lat="39.76034775430648" lon="8.757148591080801"><ele>573.0</ele><time>2026-04-27T09:44:33.802Z</time></trkpt><trkpt lat="39.76026688431112" lon="8.757045357907112"><ele>573.0</ele><time>2026-04-27T09:44:34.801Z</time></trkpt><trkpt lat="39.76019787572968" lon="8.756958292935177"><ele>572.5</ele><time>2026-04-27T09:44:35.801Z</time></trkpt><trkpt lat="39.76013038549754" lon="8.756859459890913"><ele>572.0</ele><time>2026-04-27T09:44:36.801Z</time></trkpt><trkpt lat="39.76005679040042" lon="8.756750748863675"><ele>571.5</ele><time>2026-04-27T09:44:37.801Z</time></trkpt><trkpt lat="39.7599802635073" lon="8.756617094583968"><ele>571.0</ele><time>2026-04-27T09:44:38.801Z</time></trkpt><trkpt lat="39.75990677773662" lon="8.75648488142529"><ele>571.0</ele><time>2026-04-27T09:44:39.801Z</time></trkpt><trkpt lat="39.75983202486567" lon="8.756347994984274"><ele>571.0</ele><time>2026-04-27T09:44:40.801Z</time></trkpt><trkpt lat="39.759758674400274" lon="8.75621638523397"><ele>571.0</ele><time>2026-04-27T09:44:41.801Z</time></trkpt><trkpt lat="39.75969153057999" lon="8.756102861447197"><ele>571.0</ele><time>2026-04-27T09:44:42.801Z</time></trkpt><trkpt lat="39.75963520166144" lon="8.756017272901262"><ele>571.1666666666667</ele><time>2026-04-27T09:44:43.801Z</time></trkpt><trkpt lat="39.75954065179357" lon="8.755948271189615"><ele>571.3333333333334</ele><time>2026-04-27T09:44:45.801Z</time></trkpt><trkpt lat="39.75947090175502" lon="8.755928718261304"><ele>571.5</ele><time>2026-04-27T09:44:46.801Z</time></trkpt><trkpt lat="39.75937380207997" lon="8.7559030828804"><ele>571.6666666666666</ele><time>2026-04-27T09:44:47.801Z</time></trkpt><trkpt lat="39.75929750822307" lon="8.75588348069859"><ele>571.8333333333333</ele><time>2026-04-27T09:44:48.801Z</time></trkpt><trkpt lat="39.75923297205265" lon="8.755866009958272"><ele>572.0</ele><time>2026-04-27T09:44:49.801Z</time></trkpt><trkpt lat="39.759167433407605" lon="8.755894643602431"><ele>571.2</ele><time>2026-04-27T09:44:50.801Z</time></trkpt><trkpt lat="39.75909963712601" lon="8.75599397528819"><ele>570.4000000000001</ele><time>2026-04-27T09:44:51.801Z</time></trkpt><trkpt lat="39.759030661652126" lon="8.756089065654939"><ele>569.5999999999999</ele><time>2026-04-27T09:44:52.801Z</time></trkpt><trkpt lat="39.75896297598434" lon="8.756182967673896"><ele>568.8</ele><time>2026-04-27T09:44:53.801Z</time></trkpt><trkpt lat="39.758881054106865" lon="8.756226071573519"><ele>568.0</ele><time>2026-04-27T09:44:54.801Z</time></trkpt><trkpt lat="39.75877980172561" lon="8.756249370459301"><ele>567.6</ele><time>2026-04-27T09:44:55.801Z</time></trkpt><trkpt lat="39.75867167446477" lon="8.756274637352416"><ele>567.1999999999999</ele><time>2026-04-27T09:44:56.801Z</time></trkpt><trkpt lat="39.758571558258176" lon="8.756301851663569"><ele>566.8</ele><time>2026-04-27T09:44:57.801Z</time></trkpt><trkpt lat="39.75846449439466" lon="8.756325749845718"><ele>566.4</ele><time>2026-04-27T09:44:58.8Z</time></trkpt><trkpt lat="39.75835301529587" lon="8.756347441845305"><ele>566.0</ele><time>2026-04-27T09:44:59.8Z</time></trkpt><trkpt lat="39.75823286615125" lon="8.756379768290948"><ele>566.0</ele><time>2026-04-27T09:45:00.8Z</time></trkpt><trkpt lat="39.758115724308254" lon="8.756414342674127"><ele>566.0</ele><time>2026-04-27T09:45:01.8Z</time></trkpt><trkpt lat="39.75800783179611" lon="8.756434647492199"><ele>566.0</ele><time>2026-04-27T09:45:02.8Z</time></trkpt><trkpt lat="39.75791008290146" lon="8.756438324366876"><ele>566.0</ele><time>2026-04-27T09:45:03.8Z</time></trkpt><trkpt lat="39.75781489815697" lon="8.756457526403011"><ele>566.0</ele><time>2026-04-27T09:45:04.8Z</time></trkpt><trkpt lat="39.75773201834926" lon="8.756456677947753"><ele>566.4</ele><time>2026-04-27T09:45:05.8Z</time></trkpt><trkpt lat="39.757652573306736" lon="8.756412396252198"><ele>566.8</ele><time>2026-04-27T09:45:06.8Z</time></trkpt><trkpt lat="39.757582472902925" lon="8.756349623006653"><ele>567.1999999999999</ele><time>2026-04-27T09:45:07.8Z</time></trkpt><trkpt lat="39.757502862632215" lon="8.756270208011918"><ele>567.6</ele><time>2026-04-27T09:45:08.8Z</time></trkpt><trkpt lat="39.75741339878579" lon="8.756229829807209"><ele>568.0</ele><time>2026-04-27T09:45:09.8Z</time></trkpt><trkpt lat="39.75730008756621" lon="8.756195861715554"><ele>568.0</ele><time>2026-04-27T09:45:10.8Z</time></trkpt><trkpt lat="39.75718125595999" lon="8.756183510517676"><ele>568.0</ele><time>2026-04-27T09:45:11.8Z</time></trkpt><trkpt lat="39.75704951517834" lon="8.756177799100698"><ele>568.0</ele><time>2026-04-27T09:45:12.8Z</time></trkpt><trkpt lat="39.756926580829706" lon="8.756215550602237"><ele>568.0</ele><time>2026-04-27T09:45:13.8Z</time></trkpt><trkpt lat="39.75681268858889" lon="8.75621588794288"><ele>567.8</ele><time>2026-04-27T09:45:14.8Z</time></trkpt><trkpt lat="39.75670784787041" lon="8.756202406574777"><ele>567.5999999999999</ele><time>2026-04-27T09:45:15.8Z</time></trkpt><trkpt lat="39.756626280857105" lon="8.756176450807256"><ele>567.4000000000001</ele><time>2026-04-27T09:45:16.8Z</time></trkpt><trkpt lat="39.7565461049258" lon="8.75605236964599"><ele>567.2</ele><time>2026-04-27T09:45:18.8Z</time></trkpt><trkpt lat="39.75655665639373" lon="8.755956582356218"><ele>567.0</ele><time>2026-04-27T09:45:19.8Z</time></trkpt><trkpt lat="39.756579123237955" lon="8.755846028427735"><ele>567.0</ele><time>2026-04-27T09:45:20.8Z</time></trkpt><trkpt lat="39.75662015336205" lon="8.755719722132994"><ele>567.0</ele><time>2026-04-27T09:45:21.8Z</time></trkpt><trkpt lat="39.75666101974749" lon="8.755587932038058"><ele>567.0</ele><time>2026-04-27T09:45:22.8Z</time></trkpt><trkpt lat="39.75668735481019" lon="8.7554440566175"><ele>567.0</ele><time>2026-04-27T09:45:23.8Z</time></trkpt><trkpt lat="39.75669209579285" lon="8.755291097095418"><ele>567.0</ele><time>2026-04-27T09:45:24.8Z</time></trkpt><trkpt lat="39.75667485105491" lon="8.75515834213329"><ele>566.2</ele><time>2026-04-27T09:45:25.8Z</time></trkpt><trkpt lat="39.75663570416016" lon="8.755059403081836"><ele>565.4000000000001</ele><time>2026-04-27T09:45:26.8Z</time></trkpt><trkpt lat="39.75657571916045" lon="8.75497282078154"><ele>564.5999999999999</ele><time>2026-04-27T09:45:27.8Z</time></trkpt><trkpt lat="39.756500156012045" lon="8.754889380055669"><ele>563.8</ele><time>2026-04-27T09:45:28.8Z</time></trkpt><trkpt lat="39.75640918846669" lon="8.754801079432704"><ele>563.0</ele><time>2026-04-27T09:45:29.8Z</time></trkpt><trkpt lat="39.75631846354849" lon="8.75471891859152"><ele>563.0</ele><time>2026-04-27T09:45:30.8Z</time></trkpt><trkpt lat="39.75622378010769" lon="8.754632805219346"><ele>563.0</ele><time>2026-04-27T09:45:31.8Z</time></trkpt><trkpt lat="39.75613064214288" lon="8.754546706275665"><ele>563.0</ele><time>2026-04-27T09:45:32.8Z</time></trkpt><trkpt lat="39.756041775096676" lon="8.754447990351498"><ele>563.0</ele><time>2026-04-27T09:45:33.8Z</time></trkpt><trkpt lat="39.75594711011454" lon="8.754353914721571"><ele>564.0</ele><time>2026-04-27T09:45:34.8Z</time></trkpt><trkpt lat="39.75584174532424" lon="8.754304880853239"><ele>565.0</ele><time>2026-04-27T09:45:35.8Z</time></trkpt><trkpt lat="39.755734751435604" lon="8.754307495229282"><ele>566.0</ele><time>2026-04-27T09:45:36.8Z</time></trkpt><trkpt lat="39.75560964706245" lon="8.754311731008285"><ele>567.0</ele><time>2026-04-27T09:45:37.8Z</time></trkpt><trkpt lat="39.75549873835515" lon="8.754327766553795"><ele>567.0</ele><time>2026-04-27T09:45:38.8Z</time></trkpt><trkpt lat="39.75538502181416" lon="8.75434538013539"><ele>567.0</ele><time>2026-04-27T09:45:39.8Z</time></trkpt><trkpt lat="39.755286826922166" lon="8.754366047697644"><ele>567.0</ele><time>2026-04-27T09:45:40.8Z</time></trkpt><trkpt lat="39.755191250856534" lon="8.754314851008358"><ele>567.0</ele><time>2026-04-27T09:45:41.8Z</time></trkpt><trkpt lat="39.755095342866376" lon="8.7542436811201"><ele>567.0</ele><time>2026-04-27T09:45:42.799Z</time></trkpt><trkpt lat="39.75502911303906" lon="8.75411713280215"><ele>568.0</ele><time>2026-04-27T09:45:43.799Z</time></trkpt><trkpt lat="39.7549626527804" lon="8.754014549873421"><ele>569.0</ele><time>2026-04-27T09:45:44.799Z</time></trkpt><trkpt lat="39.75488450995134" lon="8.75392886798179"><ele>570.0</ele><time>2026-04-27T09:45:45.799Z</time></trkpt><trkpt lat="39.754787383562515" lon="8.753823777501495"><ele>571.0</ele><time>2026-04-27T09:45:46.799Z</time></trkpt><trkpt lat="39.75468718669011" lon="8.753709687804433"><ele>571.0</ele><time>2026-04-27T09:45:47.799Z</time></trkpt><trkpt lat="39.75458224939865" lon="8.753627658974205"><ele>571.0</ele><time>2026-04-27T09:45:48.799Z</time></trkpt><trkpt lat="39.75446027223664" lon="8.753597237783532"><ele>571.0</ele><time>2026-04-27T09:45:49.799Z</time></trkpt><trkpt lat="39.754335369065885" lon="8.753598183806936"><ele>571.0</ele><time>2026-04-27T09:45:50.799Z</time></trkpt><trkpt lat="39.75421639267052" lon="8.753614489629967"><ele>573.75</ele><time>2026-04-27T09:45:51.799Z</time></trkpt><trkpt lat="39.754089602749744" lon="8.753648551035335"><ele>576.5</ele><time>2026-04-27T09:45:52.799Z</time></trkpt><trkpt lat="39.75396611745775" lon="8.75368212974998"><ele>579.25</ele><time>2026-04-27T09:45:53.799Z</time></trkpt><trkpt lat="39.75384085235627" lon="8.753703915168579"><ele>582.0</ele><time>2026-04-27T09:45:54.799Z</time></trkpt><trkpt lat="39.753749494036505" lon="8.753698417068478"><ele>582.0</ele><time>2026-04-27T09:45:55.799Z</time></trkpt><trkpt lat="39.75366600607229" lon="8.75366802591929"><ele>582.0</ele><time>2026-04-27T09:45:56.799Z</time></trkpt><trkpt lat="39.75360473205713" lon="8.753649132498829"><ele>582.0</ele><time>2026-04-27T09:45:57.799Z</time></trkpt><trkpt lat="39.75360951131174" lon="8.753561353182494"><ele>582.0</ele><time>2026-04-27T09:45:59.799Z</time></trkpt><trkpt lat="39.753579557267486" lon="8.753401186899222"><ele>582.0</ele><time>2026-04-27T09:46:01.799Z</time></trkpt><trkpt lat="39.75359658690004" lon="8.753315431510979"><ele>582.0</ele><time>2026-04-27T09:46:02.799Z</time></trkpt><trkpt lat="39.75361784729111" lon="8.75321117330392"><ele>583.3333333333334</ele><time>2026-04-27T09:46:03.799Z</time></trkpt><trkpt lat="39.753657734033574" lon="8.753106218792347"><ele>584.6666666666666</ele><time>2026-04-27T09:46:04.799Z</time></trkpt><trkpt lat="39.75369792942381" lon="8.753020138874872"><ele>586.0</ele><time>2026-04-27T09:46:05.799Z</time></trkpt><trkpt lat="39.75372718605679" lon="8.752933776408698"><ele>587.3333333333333</ele><time>2026-04-27T09:46:06.799Z</time></trkpt><trkpt lat="39.753754218177725" lon="8.752840236185838"><ele>588.6666666666666</ele><time>2026-04-27T09:46:07.799Z</time></trkpt><trkpt lat="39.753780854570486" lon="8.752741491299961"><ele>590.0</ele><time>2026-04-27T09:46:08.799Z</time></trkpt><trkpt lat="39.75381224647282" lon="8.752640913397457"><ele>590.6666666666666</ele><time>2026-04-27T09:46:09.799Z</time></trkpt><trkpt lat="39.75384807990016" lon="8.752534954143545"><ele>591.3333333333333</ele><time>2026-04-27T09:46:10.799Z</time></trkpt><trkpt lat="39.75387611058559" lon="8.752425439591994"><ele>592.0</ele><time>2026-04-27T09:46:11.799Z</time></trkpt><trkpt lat="39.75388393261497" lon="8.752311943399153"><ele>592.6666666666666</ele><time>2026-04-27T09:46:12.799Z</time></trkpt><trkpt lat="39.75389044854662" lon="8.752208081883401"><ele>593.3333333333334</ele><time>2026-04-27T09:46:13.799Z</time></trkpt><trkpt lat="39.75390269643837" lon="8.752088528956277"><ele>594.0</ele><time>2026-04-27T09:46:14.799Z</time></trkpt><trkpt lat="39.75393218749507" lon="8.751948344045891"><ele>594.4</ele><time>2026-04-27T09:46:15.799Z</time></trkpt><trkpt lat="39.753986619250554" lon="8.751834117250887"><ele>594.8</ele><time>2026-04-27T09:46:16.799Z</time></trkpt><trkpt lat="39.754054913744625" lon="8.751722775438843"><ele>595.2</ele><time>2026-04-27T09:46:17.799Z</time></trkpt><trkpt lat="39.754133770442024" lon="8.751615788526964"><ele>595.6</ele><time>2026-04-27T09:46:18.799Z</time></trkpt><trkpt lat="39.754216095988" lon="8.75151098388922"><ele>596.0</ele><time>2026-04-27T09:46:19.799Z</time></trkpt><trkpt lat="39.754301230951654" lon="8.751409717201655"><ele>597.5</ele><time>2026-04-27T09:46:20.799Z</time></trkpt><trkpt lat="39.7543949463038" lon="8.751299076945504"><ele>599.0</ele><time>2026-04-27T09:46:21.799Z</time></trkpt><trkpt lat="39.754494317838635" lon="8.751171229285452"><ele>600.5</ele><time>2026-04-27T09:46:22.799Z</time></trkpt><trkpt lat="39.754592174147284" lon="8.751045941048488"><ele>602.0</ele><time>2026-04-27T09:46:23.799Z</time></trkpt><trkpt lat="39.75469162370734" lon="8.75091533552784"><ele>602.3333333333333</ele><time>2026-04-27T09:46:24.799Z</time></trkpt><trkpt lat="39.754797109052404" lon="8.750766804155504"><ele>602.6666666666666</ele><time>2026-04-27T09:46:25.799Z</time></trkpt><trkpt lat="39.75491323591405" lon="8.75063698339463"><ele>603.0</ele><time>2026-04-27T09:46:26.799Z</time></trkpt><trkpt lat="39.75501338444928" lon="8.750497534944987"><ele>603.0</ele><time>2026-04-27T09:46:27.798Z</time></trkpt><trkpt lat="39.75509236182088" lon="8.750360046293633"><ele>603.0</ele><time>2026-04-27T09:46:28.798Z</time></trkpt><trkpt lat="39.75516829187464" lon="8.750285789843796"><ele>603.0</ele><time>2026-04-27T09:46:29.798Z</time></trkpt><trkpt lat="39.75523869975785" lon="8.750194719502202"><ele>603.0</ele><time>2026-04-27T09:46:30.798Z</time></trkpt><trkpt lat="39.75529189648644" lon="8.75009917474258"><ele>603.0</ele><time>2026-04-27T09:46:31.798Z</time></trkpt><trkpt lat="39.75532262429798" lon="8.749996076552318"><ele>603.6</ele><time>2026-04-27T09:46:32.797Z</time></trkpt><trkpt lat="39.75534282638747" lon="8.749903239743226"><ele>604.1999999999999</ele><time>2026-04-27T09:46:33.798Z</time></trkpt><trkpt lat="39.75533999320232" lon="8.749803258889187"><ele>604.8</ele><time>2026-04-27T09:46:34.797Z</time></trkpt><trkpt lat="39.75531083476213" lon="8.749651119301252"><ele>605.4</ele><time>2026-04-27T09:46:35.797Z</time></trkpt><trkpt lat="39.75526493011221" lon="8.74948747188891"><ele>606.0</ele><time>2026-04-27T09:46:36.797Z</time></trkpt><trkpt lat="39.75525313520712" lon="8.749338982184709"><ele>606.0</ele><time>2026-04-27T09:46:37.797Z</time></trkpt><trkpt lat="39.75526290883786" lon="8.749206251483105"><ele>606.0</ele><time>2026-04-27T09:46:38.797Z</time></trkpt><trkpt lat="39.755277445220045" lon="8.749087687582799"><ele>606.0</ele><time>2026-04-27T09:46:39.798Z</time></trkpt><trkpt lat="39.75529349800443" lon="8.748988661872342"><ele>606.0</ele><time>2026-04-27T09:46:40.797Z</time></trkpt><trkpt lat="39.755313640361926" lon="8.748910490056113"><ele>606.0</ele><time>2026-04-27T09:46:41.797Z</time></trkpt><trkpt lat="39.755351392852056" lon="8.748802933963184"><ele>606.0</ele><time>2026-04-27T09:46:43.798Z</time></trkpt><trkpt lat="39.75533313222515" lon="8.748717272281269"><ele>606.0</ele><time>2026-04-27T09:46:45.797Z</time></trkpt><trkpt lat="39.755262075041934" lon="8.748692159261303"><ele>606.0</ele><time>2026-04-27T09:46:46.797Z</time></trkpt><trkpt lat="39.75519524430007" lon="8.748717996216719"><ele>606.0</ele><time>2026-04-27T09:46:47.797Z</time></trkpt><trkpt lat="39.75507659013603" lon="8.74875986607717"><ele>606.0</ele><time>2026-04-27T09:46:49.797Z</time></trkpt><trkpt lat="39.75499290635664" lon="8.748789510837478"><ele>606.0</ele><time>2026-04-27T09:46:50.797Z</time></trkpt><trkpt lat="39.754898072649404" lon="8.748818894255377"><ele>605.0</ele><time>2026-04-27T09:46:51.797Z</time></trkpt><trkpt lat="39.754813908958084" lon="8.748838834987273"><ele>604.0</ele><time>2026-04-27T09:46:52.797Z</time></trkpt><trkpt lat="39.75471686406234" lon="8.748862913029773"><ele>603.0</ele><time>2026-04-27T09:46:53.797Z</time></trkpt><trkpt lat="39.75462937821533" lon="8.748891671825596"><ele>602.0</ele><time>2026-04-27T09:46:54.797Z</time></trkpt><trkpt lat="39.754568382335314" lon="8.748921293884313"><ele>601.0</ele><time>2026-04-27T09:46:55.797Z</time></trkpt><trkpt lat="39.75447402362719" lon="8.748956974233998"><ele>600.0</ele><time>2026-04-27T09:46:57.797Z</time></trkpt><trkpt lat="39.75435597100265" lon="8.74898004296537"><ele>598.8</ele><time>2026-04-27T09:46:59.797Z</time></trkpt><trkpt lat="39.75428464285084" lon="8.74874541599273"><ele>597.6</ele><time>2026-04-27T09:47:01.797Z</time></trkpt><trkpt lat="39.75423345168348" lon="8.748657569912634"><ele>596.4</ele><time>2026-04-27T09:47:03.797Z</time></trkpt><trkpt lat="39.75420940536653" lon="8.748568646551014"><ele>595.2</ele><time>2026-04-27T09:47:04.797Z</time></trkpt><trkpt lat="39.754185031796595" lon="8.748471918988612"><ele>594.0</ele><time>2026-04-27T09:47:05.797Z</time></trkpt><trkpt lat="39.75416415976456" lon="8.74837873847793"><ele>592.0</ele><time>2026-04-27T09:47:06.797Z</time></trkpt><trkpt lat="39.75415431805219" lon="8.748278472110517"><ele>590.0</ele><time>2026-04-27T09:47:07.797Z</time></trkpt><trkpt lat="39.754166146176374" lon="8.748148757883062"><ele>588.0</ele><time>2026-04-27T09:47:08.797Z</time></trkpt><trkpt lat="39.754167578288175" lon="8.748039283831643"><ele>586.0</ele><time>2026-04-27T09:47:09.797Z</time></trkpt><trkpt lat="39.75327339612212" lon="8.74919935942297"><ele>585.4</ele><time>2026-04-27T09:47:10.797Z</time></trkpt><trkpt lat="39.75318375495129" lon="8.749226032082806"><ele>584.8</ele><time>2026-04-27T09:47:11.797Z</time></trkpt><trkpt lat="39.75309626777539" lon="8.749248184771853"><ele>584.1999999999999</ele><time>2026-04-27T09:47:12.797Z</time></trkpt><trkpt lat="39.753006317411796" lon="8.749274769489173"><ele>583.6</ele><time>2026-04-27T09:47:13.797Z</time></trkpt><trkpt lat="39.752918702671785" lon="8.749302919532633"><ele>583.0</ele><time>2026-04-27T09:47:14.797Z</time></trkpt><trkpt lat="39.7528304153026" lon="8.74934474106947"><ele>583.8</ele><time>2026-04-27T09:47:15.797Z</time></trkpt><trkpt lat="39.752742319245904" lon="8.749391066580054"><ele>584.5999999999999</ele><time>2026-04-27T09:47:16.797Z</time></trkpt><trkpt lat="39.75264841216268" lon="8.749443547123288"><ele>585.4000000000001</ele><time>2026-04-27T09:47:17.797Z</time></trkpt><trkpt lat="39.752551490784356" lon="8.749491739279751"><ele>586.2</ele><time>2026-04-27T09:47:18.797Z</time></trkpt><trkpt lat="39.75245445150112" lon="8.749541828132605"><ele>587.0</ele><time>2026-04-27T09:47:19.797Z</time></trkpt><trkpt lat="39.75234810463292" lon="8.749574503773722"><ele>584.4</ele><time>2026-04-27T09:47:20.797Z</time></trkpt><trkpt lat="39.75225566861716" lon="8.749620550101149"><ele>581.8000000000001</ele><time>2026-04-27T09:47:21.797Z</time></trkpt><trkpt lat="39.75215799536443" lon="8.749671067551187"><ele>579.2</ele><time>2026-04-27T09:47:22.797Z</time></trkpt><trkpt lat="39.752051466086385" lon="8.749726314190013"><ele>576.6</ele><time>2026-04-27T09:47:23.797Z</time></trkpt><trkpt lat="39.75193802083362" lon="8.749785148942818"><ele>574.0</ele><time>2026-04-27T09:47:24.797Z</time></trkpt><trkpt lat="39.75182306665793" lon="8.749842560444746"><ele>572.0</ele><time>2026-04-27T09:47:25.797Z</time></trkpt><trkpt lat="39.75171500991327" lon="8.749893992665275"><ele>570.0</ele><time>2026-04-27T09:47:26.797Z</time></trkpt><trkpt lat="39.751603130339866" lon="8.749943661857374"><ele>568.0</ele><time>2026-04-27T09:47:27.797Z</time></trkpt><trkpt lat="39.751493312614976" lon="8.74999127455485"><ele>566.0</ele><time>2026-04-27T09:47:28.797Z</time></trkpt><trkpt lat="39.75137991584759" lon="8.750040439124724"><ele>566.0</ele><time>2026-04-27T09:47:29.796Z</time></trkpt><trkpt lat="39.751269711656334" lon="8.750091080777482"><ele>566.0</ele><time>2026-04-27T09:47:30.796Z</time></trkpt><trkpt lat="39.75116020143525" lon="8.750143150125139"><ele>566.0</ele><time>2026-04-27T09:47:31.796Z</time></trkpt><trkpt lat="39.75105020817739" lon="8.750198593115975"><ele>566.0</ele><time>2026-04-27T09:47:32.796Z</time></trkpt><trkpt lat="39.75094160038383" lon="8.750253940876018"><ele>565.25</ele><time>2026-04-27T09:47:33.796Z</time></trkpt><trkpt lat="39.75081883784305" lon="8.750318231983638"><ele>564.5</ele><time>2026-04-27T09:47:34.796Z</time></trkpt><trkpt lat="39.75070252950224" lon="8.750379142991552"><ele>563.75</ele><time>2026-04-27T09:47:35.796Z</time></trkpt><trkpt lat="39.75058882348586" lon="8.750440013873812"><ele>563.0</ele><time>2026-04-27T09:47:36.796Z</time></trkpt><trkpt lat="39.75047591868295" lon="8.750502314507026"><ele>563.0</ele><time>2026-04-27T09:47:37.796Z</time></trkpt><trkpt lat="39.75035347734789" lon="8.750574576001988"><ele>563.0</ele><time>2026-04-27T09:47:38.796Z</time></trkpt><trkpt lat="39.75023625778275" lon="8.750649950553164"><ele>563.0</ele><time>2026-04-27T09:47:39.796Z</time></trkpt><trkpt lat="39.75012686153894" lon="8.750733211488988"><ele>563.0</ele><time>2026-04-27T09:47:40.796Z</time></trkpt><trkpt lat="39.750018702453175" lon="8.750809944874351"><ele>562.25</ele><time>2026-04-27T09:47:41.796Z</time></trkpt><trkpt lat="39.749906292025656" lon="8.7508869792056"><ele>561.5</ele><time>2026-04-27T09:47:42.796Z</time></trkpt><trkpt lat="39.74979066596095" lon="8.7509602281533"><ele>560.75</ele><time>2026-04-27T09:47:43.796Z</time></trkpt><trkpt lat="39.749677260981265" lon="8.75102550464396"><ele>560.0</ele><time>2026-04-27T09:47:44.796Z</time></trkpt><trkpt lat="39.749563389836794" lon="8.751089120863476"><ele>560.0</ele><time>2026-04-27T09:47:45.796Z</time></trkpt><trkpt lat="39.74945180045757" lon="8.75117208800904"><ele>560.0</ele><time>2026-04-27T09:47:46.796Z</time></trkpt><trkpt lat="39.7493336428906" lon="8.7512318151738"><ele>560.0</ele><time>2026-04-27T09:47:47.796Z</time></trkpt><trkpt lat="39.74922688667134" lon="8.75128208903384"><ele>560.0</ele><time>2026-04-27T09:47:48.796Z</time></trkpt><trkpt lat="39.749119683078554" lon="8.751335216742858"><ele>558.25</ele><time>2026-04-27T09:47:49.796Z</time></trkpt><trkpt lat="39.74902415476273" lon="8.751387994853053"><ele>556.5</ele><time>2026-04-27T09:47:50.796Z</time></trkpt><trkpt lat="39.748916430579975" lon="8.751444119994417"><ele>554.75</ele><time>2026-04-27T09:47:51.796Z</time></trkpt><trkpt lat="39.74880802708304" lon="8.751529430592601"><ele>553.0</ele><time>2026-04-27T09:47:52.796Z</time></trkpt><trkpt lat="39.748704919093704" lon="8.75161853133874"><ele>553.0</ele><time>2026-04-27T09:47:53.796Z</time></trkpt><trkpt lat="39.74859893884755" lon="8.751710587876234"><ele>553.0</ele><time>2026-04-27T09:47:54.796Z</time></trkpt><trkpt lat="39.748506584778795" lon="8.751790808582737"><ele>553.0</ele><time>2026-04-27T09:47:55.796Z</time></trkpt><trkpt lat="39.74842908106145" lon="8.751885562958885"><ele>553.0</ele><time>2026-04-27T09:47:56.796Z</time></trkpt><trkpt lat="39.74833164712694" lon="8.751952854369547"><ele>551.6</ele><time>2026-04-27T09:47:57.796Z</time></trkpt><trkpt lat="39.74825535648472" lon="8.752043721842458"><ele>550.1999999999999</ele><time>2026-04-27T09:47:58.796Z</time></trkpt><trkpt lat="39.74819130830509" lon="8.752129912994706"><ele>548.8</ele><time>2026-04-27T09:47:59.796Z</time></trkpt><trkpt lat="39.748139618650114" lon="8.752187058795467"><ele>547.4</ele><time>2026-04-27T09:48:00.796Z</time></trkpt><trkpt lat="39.74806338815218" lon="8.75223440061856"><ele>546.0</ele><time>2026-04-27T09:48:02.796Z</time></trkpt><trkpt lat="39.74794522766016" lon="8.752196327533188"><ele>546.0</ele><time>2026-04-27T09:48:04.796Z</time></trkpt><trkpt lat="39.74789331889628" lon="8.752108277893987"><ele>546.0</ele><time>2026-04-27T09:48:05.796Z</time></trkpt><trkpt lat="39.74783590416321" lon="8.752015460416676"><ele>546.0</ele><time>2026-04-27T09:48:06.796Z</time></trkpt><trkpt lat="39.747763819810956" lon="8.751915691459395"><ele>546.0</ele><time>2026-04-27T09:48:07.796Z</time></trkpt><trkpt lat="39.747706305124574" lon="8.751802384199985"><ele>546.0</ele><time>2026-04-27T09:48:08.796Z</time></trkpt><trkpt lat="39.74763541391646" lon="8.751691834720173"><ele>544.6</ele><time>2026-04-27T09:48:09.796Z</time></trkpt><trkpt lat="39.74757156674973" lon="8.751597584326968"><ele>543.2</ele><time>2026-04-27T09:48:10.796Z</time></trkpt><trkpt lat="39.747506006298636" lon="8.751533488819886"><ele>541.8</ele><time>2026-04-27T09:48:11.796Z</time></trkpt><trkpt lat="39.74742406774887" lon="8.751483553844029"><ele>540.4</ele><time>2026-04-27T09:48:12.796Z</time></trkpt><trkpt lat="39.747323579669995" lon="8.751425772931496"><ele>539.0</ele><time>2026-04-27T09:48:13.796Z</time></trkpt><trkpt lat="39.74720624693409" lon="8.751378762553715"><ele>539.0</ele><time>2026-04-27T09:48:14.795Z</time></trkpt><trkpt lat="39.74710218400286" lon="8.751305598616188"><ele>539.0</ele><time>2026-04-27T09:48:15.795Z</time></trkpt><trkpt lat="39.74699762367408" lon="8.75123942495809"><ele>539.0</ele><time>2026-04-27T09:48:16.795Z</time></trkpt><trkpt lat="39.74690709648624" lon="8.751171920867058"><ele>539.0</ele><time>2026-04-27T09:48:17.795Z</time></trkpt><trkpt lat="39.74682095801023" lon="8.751101723917515"><ele>539.0</ele><time>2026-04-27T09:48:18.795Z</time></trkpt><trkpt lat="39.74673432444376" lon="8.751032380995065"><ele>537.4</ele><time>2026-04-27T09:48:19.795Z</time></trkpt><trkpt lat="39.746655966237974" lon="8.750976573884556"><ele>535.8</ele><time>2026-04-27T09:48:20.795Z</time></trkpt><trkpt lat="39.74657397507419" lon="8.750934269487393"><ele>534.2</ele><time>2026-04-27T09:48:21.795Z</time></trkpt><trkpt lat="39.74646761779366" lon="8.750911750764443"><ele>532.6</ele><time>2026-04-27T09:48:22.795Z</time></trkpt><trkpt lat="39.74636475332047" lon="8.750886177437701"><ele>531.0</ele><time>2026-04-27T09:48:23.795Z</time></trkpt><trkpt lat="39.748704919093704" lon="8.75161853133874"><ele>534.75</ele><time>2026-04-27T09:47:53.796Z</time></trkpt><trkpt lat="39.74859893884755" lon="8.751710587876234"><ele>538.5</ele><time>2026-04-27T09:47:54.796Z</time></trkpt><trkpt lat="39.748506584778795" lon="8.751790808582737"><ele>542.25</ele><time>2026-04-27T09:47:55.796Z</time></trkpt><trkpt lat="39.74842908106145" lon="8.751885562958885"><ele>546.0</ele><time>2026-04-27T09:47:56.796Z</time></trkpt><trkpt lat="39.74833164712694" lon="8.751952854369547"><ele>546.0</ele><time>2026-04-27T09:47:57.796Z</time></trkpt><trkpt lat="39.74825535648472" lon="8.752043721842458"><ele>546.0</ele><time>2026-04-27T09:47:58.796Z</time></trkpt><trkpt lat="39.74819130830509" lon="8.752129912994706"><ele>546.0</ele><time>2026-04-27T09:47:59.796Z</time></trkpt><trkpt lat="39.748139618650114" lon="8.752187058795467"><ele>546.0</ele><time>2026-04-27T09:48:00.796Z</time></trkpt><trkpt lat="39.74806338815218" lon="8.75223440061856"><ele>546.0</ele><time>2026-04-27T09:48:02.796Z</time></trkpt><trkpt lat="39.74794522766016" lon="8.752196327533188"><ele>546.0</ele><time>2026-04-27T09:48:04.796Z</time></trkpt><trkpt lat="39.74789331889628" lon="8.752108277893987"><ele>546.0</ele><time>2026-04-27T09:48:05.796Z</time></trkpt><trkpt lat="39.74783590416321" lon="8.752015460416676"><ele>546.0</ele><time>2026-04-27T09:48:06.796Z</time></trkpt><trkpt lat="39.747763819810956" lon="8.751915691459395"><ele>546.0</ele><time>2026-04-27T09:48:07.796Z</time></trkpt><trkpt lat="39.747706305124574" lon="8.751802384199985"><ele>546.0</ele><time>2026-04-27T09:48:08.796Z</time></trkpt><trkpt lat="39.74763541391646" lon="8.751691834720173"><ele>544.6</ele><time>2026-04-27T09:48:09.796Z</time></trkpt><trkpt lat="39.74757156674973" lon="8.751597584326968"><ele>543.2</ele><time>2026-04-27T09:48:10.796Z</time></trkpt><trkpt lat="39.747506006298636" lon="8.751533488819886"><ele>541.8</ele><time>2026-04-27T09:48:11.796Z</time></trkpt><trkpt lat="39.74742406774887" lon="8.751483553844029"><ele>540.4</ele><time>2026-04-27T09:48:12.796Z</time></trkpt><trkpt lat="39.747323579669995" lon="8.751425772931496"><ele>539.0</ele><time>2026-04-27T09:48:13.796Z</time></trkpt><trkpt lat="39.74720624693409" lon="8.751378762553715"><ele>539.0</ele><time>2026-04-27T09:48:14.795Z</time></trkpt><trkpt lat="39.74710218400286" lon="8.751305598616188"><ele>539.0</ele><time>2026-04-27T09:48:15.795Z</time></trkpt><trkpt lat="39.74699762367408" lon="8.75123942495809"><ele>539.0</ele><time>2026-04-27T09:48:16.795Z</time></trkpt><trkpt lat="39.74690709648624" lon="8.751171920867058"><ele>539.0</ele><time>2026-04-27T09:48:17.795Z</time></trkpt><trkpt lat="39.74682095801023" lon="8.751101723917515"><ele>539.0</ele><time>2026-04-27T09:48:18.795Z</time></trkpt><trkpt lat="39.74673432444376" lon="8.751032380995065"><ele>537.4</ele><time>2026-04-27T09:48:19.795Z</time></trkpt><trkpt lat="39.746655966237974" lon="8.750976573884556"><ele>535.8</ele><time>2026-04-27T09:48:20.795Z</time></trkpt><trkpt lat="39.74657397507419" lon="8.750934269487393"><ele>534.2</ele><time>2026-04-27T09:48:21.795Z</time></trkpt><trkpt lat="39.74646761779366" lon="8.750911750764443"><ele>532.6</ele><time>2026-04-27T09:48:22.795Z</time></trkpt><trkpt lat="39.74636475332047" lon="8.750886177437701"><ele>531.0</ele><time>2026-04-27T09:48:23.795Z</time></trkpt><trkpt lat="39.74625716153785" lon="8.750856667652526"><ele>531.0</ele><time>2026-04-27T09:48:24.795Z</time></trkpt><trkpt lat="39.74614823759737" lon="8.750830222131379"><ele>531.0</ele><time>2026-04-27T09:48:25.795Z</time></trkpt><trkpt lat="39.74601948046854" lon="8.750811035320979"><ele>531.0</ele><time>2026-04-27T09:48:26.795Z</time></trkpt><trkpt lat="39.74590758526315" lon="8.750811634316085"><ele>531.0</ele><time>2026-04-27T09:48:27.795Z</time></trkpt><trkpt lat="39.74580264180296" lon="8.750833766454232"><ele>529.6</ele><time>2026-04-27T09:48:28.795Z</time></trkpt><trkpt lat="39.745705795388474" lon="8.75087292408438"><ele>528.2</ele><time>2026-04-27T09:48:29.795Z</time></trkpt><trkpt lat="39.74560406181815" lon="8.750931271865483"><ele>526.8</ele><time>2026-04-27T09:48:30.795Z</time></trkpt><trkpt lat="39.74550826580013" lon="8.750999512732154"><ele>525.4</ele><time>2026-04-27T09:48:31.795Z</time></trkpt><trkpt lat="39.74541017981919" lon="8.751071916109373"><ele>524.0</ele><time>2026-04-27T09:48:32.795Z</time></trkpt><trkpt lat="39.745302321052954" lon="8.75114845777711"><ele>522.25</ele><time>2026-04-27T09:48:33.795Z</time></trkpt><trkpt lat="39.74519876146941" lon="8.75121483122947"><ele>520.5</ele><time>2026-04-27T09:48:34.795Z</time></trkpt><trkpt lat="39.74510278718425" lon="8.751274525899273"><ele>518.75</ele><time>2026-04-27T09:48:35.795Z</time></trkpt><trkpt lat="39.74499691333167" lon="8.751338360545414"><ele>517.0</ele><time>2026-04-27T09:48:36.793Z</time></trkpt><trkpt lat="39.7448876215997" lon="8.751399461490193"><ele>517.0</ele><time>2026-04-27T09:48:37.793Z</time></trkpt><trkpt lat="39.74478745207273" lon="8.751441717281818"><ele>517.0</ele><time>2026-04-27T09:48:38.793Z</time></trkpt><trkpt lat="39.74468502274865" lon="8.751470274379747"><ele>517.0</ele><time>2026-04-27T09:48:39.793Z</time></trkpt><trkpt lat="39.744575172320786" lon="8.751502661634213"><ele>517.0</ele><time>2026-04-27T09:48:40.793Z</time></trkpt><trkpt lat="39.74447749353629" lon="8.751535932950187"><ele>517.0</ele><time>2026-04-27T09:48:41.793Z</time></trkpt><trkpt lat="39.74438748263744" lon="8.751575464322132"><ele>516.6</ele><time>2026-04-27T09:48:42.793Z</time></trkpt><trkpt lat="39.7442991307707" lon="8.75161953510826"><ele>516.2</ele><time>2026-04-27T09:48:43.793Z</time></trkpt><trkpt lat="39.74420262563994" lon="8.751685825690993"><ele>515.8</ele><time>2026-04-27T09:48:44.793Z</time></trkpt><trkpt lat="39.74410848151429" lon="8.751762240943718"><ele>515.4</ele><time>2026-04-27T09:48:45.793Z</time></trkpt><trkpt lat="39.74400052970315" lon="8.751854634087643"><ele>515.0</ele><time>2026-04-27T09:48:46.793Z</time></trkpt><trkpt lat="39.7439026048035" lon="8.751938445406243"><ele>514.0</ele><time>2026-04-27T09:48:47.793Z</time></trkpt><trkpt lat="39.74379998088241" lon="8.752024965001178"><ele>513.0</ele><time>2026-04-27T09:48:48.793Z</time></trkpt><trkpt lat="39.74369535196827" lon="8.75210971563334"><ele>512.0</ele><time>2026-04-27T09:48:49.793Z</time></trkpt><trkpt lat="39.743605957699266" lon="8.752179362306256"><ele>511.0</ele><time>2026-04-27T09:48:50.792Z</time></trkpt><trkpt lat="39.743512049126686" lon="8.75225252637067"><ele>510.0</ele><time>2026-04-27T09:48:51.792Z</time></trkpt><trkpt lat="39.743409049154145" lon="8.752337840674478"><ele>509.0</ele><time>2026-04-27T09:48:52.792Z</time></trkpt><trkpt lat="39.7433167501619" lon="8.75242134506681"><ele>508.0</ele><time>2026-04-27T09:48:53.792Z</time></trkpt><trkpt lat="39.74322159632889" lon="8.752520889465698"><ele>507.0</ele><time>2026-04-27T09:48:54.792Z</time></trkpt><trkpt lat="39.74314201470552" lon="8.752614535012734"><ele>507.0</ele><time>2026-04-27T09:48:55.792Z</time></trkpt><trkpt lat="39.74307938433849" lon="8.752712761310681"><ele>507.0</ele><time>2026-04-27T09:48:56.792Z</time></trkpt><trkpt lat="39.74300425727827" lon="8.752767320277066"><ele>507.0</ele><time>2026-04-27T09:48:57.792Z</time></trkpt><trkpt lat="39.7429431380743" lon="8.752809008617145"><ele>507.0</ele><time>2026-04-27T09:48:58.792Z</time></trkpt><trkpt lat="39.742917613562035" lon="8.75288638147288"><ele>507.0</ele><time>2026-04-27T09:49:02.792Z</time></trkpt><trkpt lat="39.742994372505855" lon="8.752823896042065"><ele>507.0</ele><time>2026-04-27T09:49:06.792Z</time></trkpt><trkpt lat="39.743051804830905" lon="8.752736574431658"><ele>507.0</ele><time>2026-04-27T09:49:07.792Z</time></trkpt><trkpt lat="39.74310331370337" lon="8.752664933608713"><ele>507.0</ele><time>2026-04-27T09:49:08.792Z</time></trkpt><trkpt lat="39.7431501527653" lon="8.752609677659906"><ele>507.0</ele><time>2026-04-27T09:49:09.792Z</time></trkpt><trkpt lat="39.743259654477875" lon="8.752512330224326"><ele>507.0</ele><time>2026-04-27T09:49:11.792Z</time></trkpt><trkpt lat="39.743229616426405" lon="8.752412968657762"><ele>507.0</ele><time>2026-04-27T09:49:15.792Z</time></trkpt><trkpt lat="39.74325060762308" lon="8.752303232158557"><ele>507.0</ele><time>2026-04-27T09:49:17.792Z</time></trkpt><trkpt lat="39.74327345906233" lon="8.752214501902394"><ele>507.0</ele><time>2026-04-27T09:49:18.792Z</time></trkpt><trkpt lat="39.74329707691999" lon="8.752102541148833"><ele>507.00000000000006</ele><time>2026-04-27T09:49:19.792Z</time></trkpt><trkpt lat="39.74332201143142" lon="8.751993483594859"><ele>507.00000000000006</ele><time>2026-04-27T09:49:20.792Z</time></trkpt><trkpt lat="39.74334932061798" lon="8.751892494541613"><ele>507.0</ele><time>2026-04-27T09:49:21.792Z</time></trkpt><trkpt lat="39.74340119589062" lon="8.751780983852264"><ele>507.0</ele><time>2026-04-27T09:49:23.792Z</time></trkpt><trkpt lat="39.74332578975306" lon="8.751685191292966"><ele>508.0</ele><time>2026-04-27T09:49:26.792Z</time></trkpt><trkpt lat="39.74324469577492" lon="8.751613475216367"><ele>509.00000000000006</ele><time>2026-04-27T09:49:28.792Z</time></trkpt><trkpt lat="39.74319738652255" lon="8.751489756906777"><ele>510.00000000000006</ele><time>2026-04-27T09:49:30.792Z</time></trkpt><trkpt lat="39.743155611732895" lon="8.75132366297141"><ele>511.0</ele><time>2026-04-27T09:49:32.792Z</time></trkpt><trkpt lat="39.74315132969431" lon="8.751209518626153"><ele>512.0</ele><time>2026-04-27T09:49:33.792Z</time></trkpt><trkpt lat="39.74315970561716" lon="8.751096323151984"><ele>512.6666666666666</ele><time>2026-04-27T09:49:34.792Z</time></trkpt><trkpt lat="39.743146980409485" lon="8.751002478188205"><ele>513.3333333333333</ele><time>2026-04-27T09:49:35.791Z</time></trkpt><trkpt lat="39.74312967567706" lon="8.750887500604252"><ele>514.0</ele><time>2026-04-27T09:49:36.791Z</time></trkpt><trkpt lat="39.74311892619996" lon="8.750789218318713"><ele>514.6666666666666</ele><time>2026-04-27T09:49:37.791Z</time></trkpt><trkpt lat="39.743103627962576" lon="8.750701475405839"><ele>515.3333333333334</ele><time>2026-04-27T09:49:38.791Z</time></trkpt><trkpt lat="39.743093804444726" lon="8.750595240580196"><ele>516.0</ele><time>2026-04-27T09:49:39.791Z</time></trkpt><trkpt lat="39.74307720394453" lon="8.75050050538831"><ele>516.0</ele><time>2026-04-27T09:49:40.791Z</time></trkpt><trkpt lat="39.74304699742675" lon="8.750377547372977"><ele>516.0</ele><time>2026-04-27T09:49:41.791Z</time></trkpt><trkpt lat="39.74302132525617" lon="8.750276804316496"><ele>516.0</ele><time>2026-04-27T09:49:42.791Z</time></trkpt><trkpt lat="39.74298632565149" lon="8.75019050172002"><ele>516.0</ele><time>2026-04-27T09:49:43.791Z</time></trkpt><trkpt lat="39.7429495474936" lon="8.75011811226508"><ele>516.0</ele><time>2026-04-27T09:49:44.791Z</time></trkpt><trkpt lat="39.74294050171958" lon="8.750028689911499"><ele>516.0</ele><time>2026-04-27T09:49:45.791Z</time></trkpt><trkpt lat="39.742964834783095" lon="8.749882692812973"><ele>515.4</ele><time>2026-04-27T09:49:47.791Z</time></trkpt><trkpt lat="39.74296079885156" lon="8.749740537149986"><ele>514.8</ele><time>2026-04-27T09:49:49.791Z</time></trkpt><trkpt lat="39.742928962894474" lon="8.749640229907104"><ele>514.1999999999999</ele><time>2026-04-27T09:49:51.791Z</time></trkpt><trkpt lat="39.74285165315102" lon="8.749562253770677"><ele>513.6</ele><time>2026-04-27T09:49:53.791Z</time></trkpt><trkpt lat="39.7427350710586" lon="8.749547985859682"><ele>513.0</ele><time>2026-04-27T09:49:55.791Z</time></trkpt><trkpt lat="39.74266822395948" lon="8.749563404138257"><ele>512.6666666666666</ele><time>2026-04-27T09:49:56.791Z</time></trkpt><trkpt lat="39.74260220904479" lon="8.7495615656304"><ele>512.3333333333334</ele><time>2026-04-27T09:49:57.791Z</time></trkpt><trkpt lat="39.74253857375625" lon="8.749537423243456"><ele>512.0</ele><time>2026-04-27T09:49:58.791Z</time></trkpt><trkpt lat="39.742467127211306" lon="8.749436312874428"><ele>511.6666666666667</ele><time>2026-04-27T09:50:00.791Z</time></trkpt><trkpt lat="39.742393348712504" lon="8.749349177655175"><ele>511.33333333333337</ele><time>2026-04-27T09:50:02.791Z</time></trkpt><trkpt lat="39.74234271497026" lon="8.749256516818983"><ele>511.0</ele><time>2026-04-27T09:50:04.791Z</time></trkpt><trkpt lat="39.74224882555576" lon="8.749184721005582"><ele>510.0</ele><time>2026-04-27T09:50:06.791Z</time></trkpt><trkpt lat="39.74221884996138" lon="8.749094863523675"><ele>509.0</ele><time>2026-04-27T09:50:08.791Z</time></trkpt><trkpt lat="39.742194212128474" lon="8.748977427554177"><ele>508.0</ele><time>2026-04-27T09:50:10.791Z</time></trkpt><trkpt lat="39.74217267692497" lon="8.748845389299937"><ele>507.0</ele><time>2026-04-27T09:50:12.791Z</time></trkpt><trkpt lat="39.742195598459695" lon="8.748707847476709"><ele>506.0</ele><time>2026-04-27T09:50:14.791Z</time></trkpt><trkpt lat="39.742185271335586" lon="8.748567830289"><ele>504.20000000000005</ele><time>2026-04-27T09:50:16.791Z</time></trkpt><trkpt lat="39.74218193146065" lon="8.748482604732393"><ele>502.40000000000003</ele><time>2026-04-27T09:50:17.791Z</time></trkpt><trkpt lat="39.74222685940673" lon="8.748332281181874"><ele>500.6</ele><time>2026-04-27T09:50:19.79Z</time></trkpt><trkpt lat="39.74225894788193" lon="8.748207785339943"><ele>498.8</ele><time>2026-04-27T09:50:21.79Z</time></trkpt><trkpt lat="39.74222495390021" lon="8.748081893697524"><ele>497.0</ele><time>2026-04-27T09:50:23.79Z</time></trkpt><trkpt lat="39.74215649029281" lon="8.748076050122298"><ele>496.99999999999994</ele><time>2026-04-27T09:50:25.79Z</time></trkpt><trkpt lat="39.742040969285696" lon="8.748039267176202"><ele>497.0</ele><time>2026-04-27T09:50:27.79Z</time></trkpt><trkpt lat="39.7419665571018" lon="8.748016523381054"><ele>497.0</ele><time>2026-04-27T09:50:28.79Z</time></trkpt><trkpt lat="39.741897891695096" lon="8.748014549128609"><ele>497.0</ele><time>2026-04-27T09:50:29.79Z</time></trkpt><trkpt lat="39.74183487338501" lon="8.747996476671501"><ele>496.99999999999994</ele><time>2026-04-27T09:50:30.79Z</time></trkpt><trkpt lat="39.74176897576355" lon="8.747936169991846"><ele>497.0</ele><time>2026-04-27T09:50:32.79Z</time></trkpt><trkpt lat="39.74170569222711" lon="8.747884629638307"><ele>497.16666666666663</ele><time>2026-04-27T09:50:33.79Z</time></trkpt><trkpt lat="39.74165588778435" lon="8.747830258092215"><ele>497.3333333333333</ele><time>2026-04-27T09:50:34.79Z</time></trkpt><trkpt lat="39.741571549701504" lon="8.747751276635748"><ele>497.5</ele><time>2026-04-27T09:50:35.79Z</time></trkpt><trkpt lat="39.74152070390795" lon="8.747685633502442"><ele>497.66666666666663</ele><time>2026-04-27T09:50:36.79Z</time></trkpt><trkpt lat="39.741466222992564" lon="8.747620471712755"><ele>497.8333333333333</ele><time>2026-04-27T09:50:37.79Z</time></trkpt><trkpt lat="39.74141530091175" lon="8.74756027424575"><ele>498.0</ele><time>2026-04-27T09:50:38.79Z</time></trkpt><trkpt lat="39.74136471617391" lon="8.747496070890525"><ele>496.8333333333333</ele><time>2026-04-27T09:50:39.79Z</time></trkpt><trkpt lat="39.74130749577463" lon="8.747449729718676"><ele>495.66666666666663</ele><time>2026-04-27T09:50:40.79Z</time></trkpt><trkpt lat="39.74122698584775" lon="8.747360750555908"><ele>494.5</ele><time>2026-04-27T09:50:41.79Z</time></trkpt><trkpt lat="39.74116793000273" lon="8.74728238406765"><ele>493.3333333333333</ele><time>2026-04-27T09:50:42.789Z</time></trkpt><trkpt lat="39.74111493068385" lon="8.747186151593809"><ele>492.16666666666663</ele><time>2026-04-27T09:50:43.79Z</time></trkpt><trkpt lat="39.74106797062045" lon="8.747126868251739"><ele>491.0</ele><time>2026-04-27T09:50:44.79Z</time></trkpt><trkpt lat="39.74101208569268" lon="8.747062419061272"><ele>491.0</ele><time>2026-04-27T09:50:45.789Z</time></trkpt><trkpt lat="39.74093424701899" lon="8.746989382037178"><ele>491.0</ele><time>2026-04-27T09:50:46.789Z</time></trkpt><trkpt lat="39.740842518720555" lon="8.74692628150304"><ele>491.0</ele><time>2026-04-27T09:50:47.789Z</time></trkpt><trkpt lat="39.740765786731124" lon="8.746862997978065"><ele>491.0</ele><time>2026-04-27T09:50:48.789Z</time></trkpt><trkpt lat="39.740694918968536" lon="8.74680774685296"><ele>491.0</ele><time>2026-04-27T09:50:49.789Z</time></trkpt><trkpt lat="39.740577589696755" lon="8.746738565581015"><ele>489.6</ele><time>2026-04-27T09:50:50.789Z</time></trkpt><trkpt lat="39.7404663177783" lon="8.746687837369866"><ele>488.20000000000005</ele><time>2026-04-27T09:50:51.789Z</time></trkpt><trkpt lat="39.74037416439946" lon="8.746651357260616"><ele>486.79999999999995</ele><time>2026-04-27T09:50:52.789Z</time></trkpt><trkpt lat="39.74027585184861" lon="8.746589699686005"><ele>485.4</ele><time>2026-04-27T09:50:53.789Z</time></trkpt><trkpt lat="39.740188988299245" lon="8.746510658938085"><ele>484.0</ele><time>2026-04-27T09:50:54.789Z</time></trkpt><trkpt lat="39.74009548266145" lon="8.746455416724073"><ele>483.33333333333337</ele><time>2026-04-27T09:50:55.789Z</time></trkpt><trkpt lat="39.740003271820356" lon="8.746397756181459"><ele>482.6666666666667</ele><time>2026-04-27T09:50:56.789Z</time></trkpt><trkpt lat="39.73992793004355" lon="8.746367231925193"><ele>482.0</ele><time>2026-04-27T09:50:57.789Z</time></trkpt><trkpt lat="39.73983946984301" lon="8.746325962272842"><ele>481.33333333333337</ele><time>2026-04-27T09:50:58.789Z</time></trkpt><trkpt lat="39.739773018558935" lon="8.746276718903454"><ele>480.6666666666667</ele><time>2026-04-27T09:50:59.789Z</time></trkpt><trkpt lat="39.73969841130209" lon="8.746207417551092"><ele>480.0</ele><time>2026-04-27T09:51:00.789Z</time></trkpt><trkpt lat="39.73963102846835" lon="8.74614154676057"><ele>480.0</ele><time>2026-04-27T09:51:01.789Z</time></trkpt><trkpt lat="39.739510080321296" lon="8.746105974516606"><ele>480.0</ele><time>2026-04-27T09:51:03.789Z</time></trkpt><trkpt lat="39.73943219089138" lon="8.746083619233813"><ele>480.0</ele><time>2026-04-27T09:51:04.789Z</time></trkpt><trkpt lat="39.739360552675215" lon="8.746074753775426"><ele>480.0</ele><time>2026-04-27T09:51:05.789Z</time></trkpt><trkpt lat="39.73927290020466" lon="8.746087872279992"><ele>480.0</ele><time>2026-04-27T09:51:06.789Z</time></trkpt><trkpt lat="39.73916891215243" lon="8.746091718347014"><ele>478.6</ele><time>2026-04-27T09:51:07.789Z</time></trkpt><trkpt lat="39.73908079391634" lon="8.74610806481295"><ele>477.2</ele><time>2026-04-27T09:51:08.789Z</time></trkpt><trkpt lat="39.73897837956644" lon="8.746139775341591"><ele>475.79999999999995</ele><time>2026-04-27T09:51:09.789Z</time></trkpt><trkpt lat="39.738877902107305" lon="8.746162237922606"><ele>474.4</ele><time>2026-04-27T09:51:10.789Z</time></trkpt><trkpt lat="39.73877483657097" lon="8.746178445268812"><ele>473.0</ele><time>2026-04-27T09:51:11.789Z</time></trkpt><trkpt lat="39.73868516869757" lon="8.746171894417483"><ele>473.0</ele><time>2026-04-27T09:51:12.789Z</time></trkpt><trkpt lat="39.73860595669243" lon="8.74612647126309"><ele>472.99999999999994</ele><time>2026-04-27T09:51:13.789Z</time></trkpt><trkpt lat="39.73853884816415" lon="8.746065825536922"><ele>472.99999999999994</ele><time>2026-04-27T09:51:14.789Z</time></trkpt><trkpt lat="39.73847789890091" lon="8.745985302126298"><ele>473.0</ele><time>2026-04-27T09:51:15.789Z</time></trkpt><trkpt lat="39.738350103659094" lon="8.745905002925367"><ele>473.0</ele><time>2026-04-27T09:51:17.789Z</time></trkpt><trkpt lat="39.738265804727966" lon="8.745880134797412"><ele>473.2</ele><time>2026-04-27T09:51:18.789Z</time></trkpt><trkpt lat="39.73818735574063" lon="8.74587414933269"><ele>473.4</ele><time>2026-04-27T09:51:19.789Z</time></trkpt><trkpt lat="39.738092701970274" lon="8.745869424002155"><ele>473.59999999999997</ele><time>2026-04-27T09:51:20.789Z</time></trkpt><trkpt lat="39.73799187553061" lon="8.745847048397174"><ele>473.79999999999995</ele><time>2026-04-27T09:51:21.789Z</time></trkpt><trkpt lat="39.737884524985006" lon="8.74581938920775"><ele>474.0</ele><time>2026-04-27T09:51:22.789Z</time></trkpt><trkpt lat="39.737808667180445" lon="8.745760406458384"><ele>474.0</ele><time>2026-04-27T09:51:23.788Z</time></trkpt><trkpt lat="39.7377193236496" lon="8.745686429179468"><ele>474.0</ele><time>2026-04-27T09:51:24.788Z</time></trkpt><trkpt lat="39.73765894421929" lon="8.745612657495245"><ele>474.0</ele><time>2026-04-27T09:51:25.788Z</time></trkpt><trkpt lat="39.73759619610484" lon="8.74554971861828"><ele>474.0</ele><time>2026-04-27T09:51:26.788Z</time></trkpt><trkpt lat="39.73752616391906" lon="8.745502572614658"><ele>474.0</ele><time>2026-04-27T09:51:27.788Z</time></trkpt><trkpt lat="39.7374585056585" lon="8.745392229285347"><ele>473.4</ele><time>2026-04-27T09:51:29.788Z</time></trkpt><trkpt lat="39.73745650258813" lon="8.74525537307282"><ele>472.79999999999995</ele><time>2026-04-27T09:51:31.788Z</time></trkpt><trkpt lat="39.73742301899636" lon="8.745089470031889"><ele>472.20000000000005</ele><time>2026-04-27T09:51:33.788Z</time></trkpt><trkpt lat="39.73743347606655" lon="8.744992287937635"><ele>471.6</ele><time>2026-04-27T09:51:34.788Z</time></trkpt><trkpt lat="39.737429106245976" lon="8.744883245560903"><ele>471.0</ele><time>2026-04-27T09:51:35.788Z</time></trkpt><trkpt lat="39.73735717089273" lon="8.744748714616437"><ele>473.20000000000005</ele><time>2026-04-27T09:51:37.788Z</time></trkpt><trkpt lat="39.73729643922452" lon="8.74464922846301"><ele>475.40000000000003</ele><time>2026-04-27T09:51:38.788Z</time></trkpt><trkpt lat="39.7372558029897" lon="8.7445337108192"><ele>477.6</ele><time>2026-04-27T09:51:39.788Z</time></trkpt><trkpt lat="39.73722190154199" lon="8.744410557059146"><ele>479.8</ele><time>2026-04-27T09:51:40.788Z</time></trkpt><trkpt lat="39.737212382672524" lon="8.744275846530359"><ele>482.0</ele><time>2026-04-27T09:51:41.788Z</time></trkpt><trkpt lat="39.73722224983973" lon="8.744145963688446"><ele>482.16666666666663</ele><time>2026-04-27T09:51:42.788Z</time></trkpt><trkpt lat="39.737226690385896" lon="8.744036317857319"><ele>482.3333333333333</ele><time>2026-04-27T09:51:43.788Z</time></trkpt><trkpt lat="39.737198556627696" lon="8.743945040310257"><ele>482.5</ele><time>2026-04-27T09:51:45.788Z</time></trkpt><trkpt lat="39.73708131553584" lon="8.743876379619097"><ele>482.66666666666663</ele><time>2026-04-27T09:51:47.788Z</time></trkpt><trkpt lat="39.736999258810265" lon="8.743857572764288"><ele>482.8333333333333</ele><time>2026-04-27T09:51:48.788Z</time></trkpt><trkpt lat="39.736925841245075" lon="8.743865665703899"><ele>483.0</ele><time>2026-04-27T09:51:49.788Z</time></trkpt><trkpt lat="39.73687900020329" lon="8.743756030293342"><ele>482.0</ele><time>2026-04-27T09:51:50.788Z</time></trkpt><trkpt lat="39.73679862352511" lon="8.743750885854036"><ele>480.99999999999994</ele><time>2026-04-27T09:51:52.788Z</time></trkpt><trkpt lat="39.73674003721235" lon="8.743710017443746"><ele>479.99999999999994</ele><time>2026-04-27T09:51:55.788Z</time></trkpt><trkpt lat="39.73671914476416" lon="8.743588666052123"><ele>479.0</ele><time>2026-04-27T09:51:57.788Z</time></trkpt><trkpt lat="39.73661868682004" lon="8.743442261129196"><ele>478.0</ele><time>2026-04-27T09:52:00.788Z</time></trkpt><trkpt lat="39.73652834925835" lon="8.743412328725618"><ele>477.4</ele><time>2026-04-27T09:52:01.788Z</time></trkpt><trkpt lat="39.73645814700581" lon="8.743405873267484"><ele>476.79999999999995</ele><time>2026-04-27T09:52:02.788Z</time></trkpt><trkpt lat="39.73632338554518" lon="8.743406695555178"><ele>476.2</ele><time>2026-04-27T09:52:04.788Z</time></trkpt><trkpt lat="39.73622739715664" lon="8.743409335694723"><ele>475.6</ele><time>2026-04-27T09:52:06.788Z</time></trkpt><trkpt lat="39.73611015989277" lon="8.743395286862196"><ele>475.0</ele><time>2026-04-27T09:52:08.787Z</time></trkpt><trkpt lat="39.7360570707138" lon="8.743350118752499"><ele>474.00000000000006</ele><time>2026-04-27T09:52:09.787Z</time></trkpt><trkpt lat="39.73600213495364" lon="8.743301731984035"><ele>473.0</ele><time>2026-04-27T09:52:10.787Z</time></trkpt><trkpt lat="39.73592965134219" lon="8.743256704716377"><ele>472.0</ele><time>2026-04-27T09:52:11.787Z</time></trkpt><trkpt lat="39.73585468093702" lon="8.74320882136348"><ele>471.0</ele><time>2026-04-27T09:52:12.787Z</time></trkpt><trkpt lat="39.73577019937852" lon="8.743179684480868"><ele>470.00000000000006</ele><time>2026-04-27T09:52:13.787Z</time></trkpt><trkpt lat="39.735660814667646" lon="8.743178969532444"><ele>469.0</ele><time>2026-04-27T09:52:15.787Z</time></trkpt><trkpt lat="39.73559431696736" lon="8.743153561359023"><ele>469.0</ele><time>2026-04-27T09:52:16.787Z</time></trkpt><trkpt lat="39.735460043658506" lon="8.743061886592793"><ele>469.0</ele><time>2026-04-27T09:52:18.787Z</time></trkpt><trkpt lat="39.73536882222847" lon="8.74309355486962"><ele>469.0</ele><time>2026-04-27T09:52:19.787Z</time></trkpt><trkpt lat="39.73529943722572" lon="8.743191453754388"><ele>469.0</ele><time>2026-04-27T09:52:21.787Z</time></trkpt><trkpt lat="39.735190829336005" lon="8.743175128284218"><ele>468.50000000000006</ele><time>2026-04-27T09:52:23.787Z</time></trkpt><trkpt lat="39.735121889592605" lon="8.74314218927776"><ele>468.0</ele><time>2026-04-27T09:52:24.787Z</time></trkpt><trkpt lat="39.7350493238635" lon="8.743096262965818"><ele>467.5</ele><time>2026-04-27T09:52:25.787Z</time></trkpt><trkpt lat="39.73499856019914" lon="8.743020034979311"><ele>467.0</ele><time>2026-04-27T09:52:26.787Z</time></trkpt><trkpt lat="39.73495015192624" lon="8.74291246463076"><ele>466.50000000000006</ele><time>2026-04-27T09:52:28.787Z</time></trkpt><trkpt lat="39.734881500652236" lon="8.742891647794233"><ele>466.0</ele><time>2026-04-27T09:52:29.787Z</time></trkpt><trkpt lat="39.734804608436114" lon="8.742836804798438"><ele>466.00000000000006</ele><time>2026-04-27T09:52:30.787Z</time></trkpt><trkpt lat="39.7347192907719" lon="8.742804333101317"><ele>466.0</ele><time>2026-04-27T09:52:31.787Z</time></trkpt><trkpt lat="39.73462892238862" lon="8.742772520151044"><ele>466.0</ele><time>2026-04-27T09:52:32.787Z</time></trkpt><trkpt lat="39.73455741612887" lon="8.74275702958257"><ele>466.0</ele><time>2026-04-27T09:52:33.787Z</time></trkpt><trkpt lat="39.73446278802289" lon="8.742673876840785"><ele>466.00000000000006</ele><time>2026-04-27T09:52:35.787Z</time></trkpt><trkpt lat="39.73441265525495" lon="8.742593160077275"><ele>466.0</ele><time>2026-04-27T09:52:36.787Z</time></trkpt><trkpt lat="39.73437771789419" lon="8.742476145730462"><ele>463.4</ele><time>2026-04-27T09:52:37.787Z</time></trkpt><trkpt lat="39.73435270331171" lon="8.742359579601173"><ele>460.8</ele><time>2026-04-27T09:52:38.787Z</time></trkpt><trkpt lat="39.734332433864815" lon="8.742257710525388"><ele>458.19999999999993</ele><time>2026-04-27T09:52:39.787Z</time></trkpt><trkpt lat="39.73431418729717" lon="8.742171412081696"><ele>455.59999999999997</ele><time>2026-04-27T09:52:40.787Z</time></trkpt><trkpt lat="39.73427025421222" lon="8.741994941929093"><ele>453.0</ele><time>2026-04-27T09:52:42.787Z</time></trkpt><trkpt lat="39.73423166706415" lon="8.74191473399011"><ele>451.6666666666667</ele><time>2026-04-27T09:52:43.787Z</time></trkpt><trkpt lat="39.734175379483894" lon="8.74182832687122"><ele>450.33333333333337</ele><time>2026-04-27T09:52:44.787Z</time></trkpt><trkpt lat="39.73411126601597" lon="8.741760388645497"><ele>449.0</ele><time>2026-04-27T09:52:45.787Z</time></trkpt><trkpt lat="39.734051372331315" lon="8.741699192344893"><ele>447.6666666666667</ele><time>2026-04-27T09:52:46.787Z</time></trkpt><trkpt lat="39.73399877339914" lon="8.741648070857856"><ele>446.33333333333337</ele><time>2026-04-27T09:52:47.787Z</time></trkpt><trkpt lat="39.73393262764437" lon="8.74159208390427"><ele>445.0</ele><time>2026-04-27T09:52:48.785Z</time></trkpt><trkpt lat="39.7338752951049" lon="8.741547903557777"><ele>445.0</ele><time>2026-04-27T09:52:49.785Z</time></trkpt><trkpt lat="39.73377215586695" lon="8.741512283758185"><ele>445.0</ele><time>2026-04-27T09:52:51.785Z</time></trkpt><trkpt lat="39.733649563621526" lon="8.741482050487448"><ele>445.0</ele><time>2026-04-27T09:52:53.785Z</time></trkpt><trkpt lat="39.73357218569615" lon="8.741472749551967"><ele>445.0</ele><time>2026-04-27T09:52:54.785Z</time></trkpt><trkpt lat="39.73350274081759" lon="8.741461658398443"><ele>445.0</ele><time>2026-04-27T09:52:55.786Z</time></trkpt><trkpt lat="39.73342928955381" lon="8.741432057931053"><ele>443.4</ele><time>2026-04-27T09:52:56.786Z</time></trkpt><trkpt lat="39.7333493996165" lon="8.741382092606722"><ele>441.8</ele><time>2026-04-27T09:52:57.785Z</time></trkpt><trkpt lat="39.733266395912764" lon="8.741325285107228"><ele>440.20000000000005</ele><time>2026-04-27T09:52:58.785Z</time></trkpt><trkpt lat="39.73317943840114" lon="8.741286291595081"><ele>438.6</ele><time>2026-04-27T09:52:59.785Z</time></trkpt><trkpt lat="39.73308859696969" lon="8.741203597786463"><ele>437.0</ele><time>2026-04-27T09:53:00.785Z</time></trkpt><trkpt lat="39.732986545336665" lon="8.741133752660732"><ele>437.0</ele><time>2026-04-27T09:53:01.785Z</time></trkpt><trkpt lat="39.73284029698904" lon="8.741148529804176"><ele>437.0</ele><time>2026-04-27T09:53:02.785Z</time></trkpt><trkpt lat="39.73271041037031" lon="8.741060331829198"><ele>437.0</ele><time>2026-04-27T09:53:03.785Z</time></trkpt><trkpt lat="39.73257331141067" lon="8.740993322082552"><ele>437.0</ele><time>2026-04-27T09:53:04.785Z</time></trkpt><trkpt lat="39.73273974171355" lon="8.741039913746588"><ele>434.3333333333333</ele><time>2026-04-27T09:53:05.785Z</time></trkpt><trkpt lat="39.73264836843623" lon="8.74099197033746"><ele>431.66666666666663</ele><time>2026-04-27T09:53:06.785Z</time></trkpt><trkpt lat="39.73257590082976" lon="8.740926025652566"><ele>429.0</ele><time>2026-04-27T09:53:07.785Z</time></trkpt><trkpt lat="39.73250111952713" lon="8.74091427890416"><ele>426.33333333333337</ele><time>2026-04-27T09:53:08.785Z</time></trkpt><trkpt lat="39.732431059152084" lon="8.74088743045852"><ele>423.6666666666667</ele><time>2026-04-27T09:53:09.785Z</time></trkpt><trkpt lat="39.732365538928654" lon="8.740843780837185"><ele>421.0</ele><time>2026-04-27T09:53:10.785Z</time></trkpt><trkpt lat="39.73229792333172" lon="8.740818861695741"><ele>421.0</ele><time>2026-04-27T09:53:11.785Z</time></trkpt><trkpt lat="39.7322119704584" lon="8.74078718436725"><ele>421.0</ele><time>2026-04-27T09:53:12.785Z</time></trkpt><trkpt lat="39.732120570074564" lon="8.740754074336804"><ele>421.0</ele><time>2026-04-27T09:53:13.785Z</time></trkpt><trkpt lat="39.732019276929414" lon="8.740718087044653"><ele>421.0</ele><time>2026-04-27T09:53:14.785Z</time></trkpt><trkpt lat="39.73193153523758" lon="8.740686914411276"><ele>421.0</ele><time>2026-04-27T09:53:15.785Z</time></trkpt><trkpt lat="39.73185196170904" lon="8.740658643622819"><ele>419.83333333333337</ele><time>2026-04-27T09:53:16.785Z</time></trkpt><trkpt lat="39.731790639508176" lon="8.740636857192595"><ele>418.6666666666667</ele><time>2026-04-27T09:53:17.785Z</time></trkpt><trkpt lat="39.731727572015465" lon="8.74061509053742"><ele>417.5</ele><time>2026-04-27T09:53:18.785Z</time></trkpt><trkpt lat="39.73165138543437" lon="8.74058885390948"><ele>416.33333333333337</ele><time>2026-04-27T09:53:19.785Z</time></trkpt><trkpt lat="39.7315805001038" lon="8.740564442935373"><ele>415.1666666666667</ele><time>2026-04-27T09:53:20.785Z</time></trkpt><trkpt lat="39.73151145387036" lon="8.740541941184759"><ele>414.0</ele><time>2026-04-27T09:53:21.785Z</time></trkpt><trkpt lat="39.73138569769985" lon="8.740529335825503"><ele>414.0</ele><time>2026-04-27T09:53:23.785Z</time></trkpt><trkpt lat="39.73130017550654" lon="8.740509459069"><ele>414.0</ele><time>2026-04-27T09:53:24.785Z</time></trkpt><trkpt lat="39.73121524333642" lon="8.740460520924977"><ele>414.0</ele><time>2026-04-27T09:53:25.785Z</time></trkpt><trkpt lat="39.731143942648096" lon="8.74040252056899"><ele>414.0</ele><time>2026-04-27T09:53:26.784Z</time></trkpt><trkpt lat="39.731079728546064" lon="8.740369849089323"><ele>414.0</ele><time>2026-04-27T09:53:27.784Z</time></trkpt><trkpt lat="39.73101368115808" lon="8.740359120828709"><ele>414.0</ele><time>2026-04-27T09:53:28.784Z</time></trkpt><trkpt lat="39.73091953643478" lon="8.740348190386202"><ele>413.79999999999995</ele><time>2026-04-27T09:53:29.784Z</time></trkpt><trkpt lat="39.7308113153612" lon="8.740336047156873"><ele>413.59999999999997</ele><time>2026-04-27T09:53:30.784Z</time></trkpt><trkpt lat="39.73070657268386" lon="8.740346587050551"><ele>413.4</ele><time>2026-04-27T09:53:31.784Z</time></trkpt><trkpt lat="39.73060288224514" lon="8.740333320053228"><ele>413.2</ele><time>2026-04-27T09:53:32.784Z</time></trkpt><trkpt lat="39.730490907380364" lon="8.740315816616027"><ele>413.0</ele><time>2026-04-27T09:53:33.784Z</time></trkpt><trkpt lat="39.73038464194562" lon="8.740309072434467"><ele>412.99999999999994</ele><time>2026-04-27T09:53:34.784Z</time></trkpt><trkpt lat="39.730289345928156" lon="8.740286145777048"><ele>413.0</ele><time>2026-04-27T09:53:35.784Z</time></trkpt><trkpt lat="39.7301960744582" lon="8.740279762653442"><ele>413.0</ele><time>2026-04-27T09:53:36.784Z</time></trkpt><trkpt lat="39.730115608468864" lon="8.740268590334805"><ele>413.0</ele><time>2026-04-27T09:53:37.784Z</time></trkpt><trkpt lat="39.73003734577535" lon="8.740256613351551"><ele>412.99999999999994</ele><time>2026-04-27T09:53:38.784Z</time></trkpt><trkpt lat="39.72996439315351" lon="8.740201130046644"><ele>413.0</ele><time>2026-04-27T09:53:39.784Z</time></trkpt><trkpt lat="39.7298920599852" lon="8.74013986427499"><ele>411.16666666666663</ele><time>2026-04-27T09:53:40.784Z</time></trkpt><trkpt lat="39.72981920811333" lon="8.740092392682234"><ele>409.3333333333333</ele><time>2026-04-27T09:53:41.784Z</time></trkpt><trkpt lat="39.7297498377749" lon="8.740075931697566"><ele>407.5</ele><time>2026-04-27T09:53:42.784Z</time></trkpt><trkpt lat="39.729673803888694" lon="8.740076638607443"><ele>405.66666666666663</ele><time>2026-04-27T09:53:43.784Z</time></trkpt><trkpt lat="39.72959389833358" lon="8.740103707512514"><ele>403.8333333333333</ele><time>2026-04-27T09:53:44.784Z</time></trkpt><trkpt lat="39.72951341031958" lon="8.740149761545139"><ele>402.0</ele><time>2026-04-27T09:53:45.784Z</time></trkpt><trkpt lat="39.729433024785386" lon="8.740215678341771"><ele>402.20000000000005</ele><time>2026-04-27T09:53:46.784Z</time></trkpt><trkpt lat="39.72933451475844" lon="8.740243192837056"><ele>402.4</ele><time>2026-04-27T09:53:47.784Z</time></trkpt><trkpt lat="39.72923488538262" lon="8.74029572071905"><ele>402.6</ele><time>2026-04-27T09:53:48.784Z</time></trkpt><trkpt lat="39.729141308254455" lon="8.740345583347166"><ele>402.79999999999995</ele><time>2026-04-27T09:53:49.784Z</time></trkpt><trkpt lat="39.72904098852973" lon="8.740418952988087"><ele>403.0</ele><time>2026-04-27T09:53:50.784Z</time></trkpt><trkpt lat="39.728947528683385" lon="8.740454864558513"><ele>403.0</ele><time>2026-04-27T09:53:51.784Z</time></trkpt><trkpt lat="39.72885234575856" lon="8.740491181157777"><ele>403.0</ele><time>2026-04-27T09:53:52.784Z</time></trkpt><trkpt lat="39.72877371603094" lon="8.74048996937786"><ele>403.0</ele><time>2026-04-27T09:53:53.784Z</time></trkpt><trkpt lat="39.72870274461806" lon="8.740503166436355"><ele>403.0</ele><time>2026-04-27T09:53:54.784Z</time></trkpt><trkpt lat="39.7285791979223" lon="8.740488874186026"><ele>403.0</ele><time>2026-04-27T09:53:56.784Z</time></trkpt><trkpt lat="39.72849400473076" lon="8.740482986972792"><ele>402.4</ele><time>2026-04-27T09:53:57.784Z</time></trkpt><trkpt lat="39.7284091360577" lon="8.740490373857993"><ele>401.79999999999995</ele><time>2026-04-27T09:53:58.784Z</time></trkpt><trkpt lat="39.72832857921274" lon="8.740531368068053"><ele>401.2</ele><time>2026-04-27T09:53:59.784Z</time></trkpt><trkpt lat="39.72824256005495" lon="8.740586538283512"><ele>400.6</ele><time>2026-04-27T09:54:00.784Z</time></trkpt><trkpt lat="39.728162142540256" lon="8.740637691120082"><ele>400.0</ele><time>2026-04-27T09:54:01.784Z</time></trkpt><trkpt lat="39.72808935677767" lon="8.740713368269066"><ele>400.0</ele><time>2026-04-27T09:54:02.784Z</time></trkpt><trkpt lat="39.727996959346974" lon="8.740749235122443"><ele>400.0</ele><time>2026-04-27T09:54:03.784Z</time></trkpt><trkpt lat="39.72789791410675" lon="8.74080734722586"><ele>400.0</ele><time>2026-04-27T09:54:04.784Z</time></trkpt><trkpt lat="39.7278047027373" lon="8.740845798018787"><ele>400.0</ele><time>2026-04-27T09:54:05.784Z</time></trkpt><trkpt lat="39.72771811683186" lon="8.740887260735446"><ele>400.0</ele><time>2026-04-27T09:54:06.784Z</time></trkpt><trkpt lat="39.72763113389626" lon="8.740957759298581"><ele>400.4</ele><time>2026-04-27T09:54:07.784Z</time></trkpt><trkpt lat="39.72754568472847" lon="8.741028870261607"><ele>400.8</ele><time>2026-04-27T09:54:08.784Z</time></trkpt><trkpt lat="39.727472967143356" lon="8.741085586870636"><ele>401.20000000000005</ele><time>2026-04-27T09:54:09.784Z</time></trkpt><trkpt lat="39.72738640734913" lon="8.741138167491549"><ele>401.6</ele><time>2026-04-27T09:54:10.784Z</time></trkpt><trkpt lat="39.72730847000735" lon="8.74119221130346"><ele>402.0</ele><time>2026-04-27T09:54:11.783Z</time></trkpt><trkpt lat="39.72722755611936" lon="8.741255723413605"><ele>402.0</ele><time>2026-04-27T09:54:12.783Z</time></trkpt><trkpt lat="39.72715261484578" lon="8.741330354111408"><ele>402.0</ele><time>2026-04-27T09:54:13.783Z</time></trkpt><trkpt lat="39.72707407761233" lon="8.74140746766908"><ele>402.0</ele><time>2026-04-27T09:54:14.783Z</time></trkpt><trkpt lat="39.72699181988044" lon="8.741473850760997"><ele>402.0</ele><time>2026-04-27T09:54:15.783Z</time></trkpt><trkpt lat="39.72690953712657" lon="8.741545894529926"><ele>402.0</ele><time>2026-04-27T09:54:16.783Z</time></trkpt><trkpt lat="39.72680953608257" lon="8.741596232094478"><ele>401.75</ele><time>2026-04-27T09:54:17.783Z</time></trkpt><trkpt lat="39.72669760263136" lon="8.741660297134276"><ele>401.5</ele><time>2026-04-27T09:54:18.783Z</time></trkpt><trkpt lat="39.726602143511805" lon="8.741712862808026"><ele>401.25</ele><time>2026-04-27T09:54:19.783Z</time></trkpt><trkpt lat="39.7264912285223" lon="8.741774084471363"><ele>401.0</ele><time>2026-04-27T09:54:20.783Z</time></trkpt><trkpt lat="39.726384859740044" lon="8.74182168714091"><ele>401.0</ele><time>2026-04-27T09:54:21.783Z</time></trkpt><trkpt lat="39.7262875916835" lon="8.741877018713126"><ele>401.0</ele><time>2026-04-27T09:54:22.783Z</time></trkpt><trkpt lat="39.72618581254289" lon="8.741930724784524"><ele>401.0</ele><time>2026-04-27T09:54:23.783Z</time></trkpt><trkpt lat="39.72607901962837" lon="8.741990951769273"><ele>401.0</ele><time>2026-04-27T09:54:24.783Z</time></trkpt><trkpt lat="39.72596798578188" lon="8.7420495119457"><ele>400.0</ele><time>2026-04-27T09:54:25.783Z</time></trkpt><trkpt lat="39.725859939898974" lon="8.742109598511972"><ele>399.0</ele><time>2026-04-27T09:54:26.783Z</time></trkpt><trkpt lat="39.725745263545775" lon="8.742169794530803"><ele>398.0</ele><time>2026-04-27T09:54:27.783Z</time></trkpt><trkpt lat="39.725623968178276" lon="8.742237181172342"><ele>397.0</ele><time>2026-04-27T09:54:28.783Z</time></trkpt><trkpt lat="39.72550655122407" lon="8.742289332163327"><ele>397.0</ele><time>2026-04-27T09:54:29.783Z</time></trkpt><trkpt lat="39.725401476512204" lon="8.742340956109823"><ele>397.0</ele><time>2026-04-27T09:54:30.783Z</time></trkpt><trkpt lat="39.72529239926575" lon="8.74238721773107"><ele>397.0</ele><time>2026-04-27T09:54:31.783Z</time></trkpt><trkpt lat="39.7251775338738" lon="8.742446561178687"><ele>397.0</ele><time>2026-04-27T09:54:32.783Z</time></trkpt><trkpt lat="39.725060102598924" lon="8.742509000750323"><ele>396.25</ele><time>2026-04-27T09:54:33.783Z</time></trkpt><trkpt lat="39.72494979902077" lon="8.74256801934634"><ele>395.5</ele><time>2026-04-27T09:54:34.783Z</time></trkpt><trkpt lat="39.72484049623032" lon="8.742627939401283"><ele>394.75</ele><time>2026-04-27T09:54:35.783Z</time></trkpt><trkpt lat="39.7247260668665" lon="8.74269170163164"><ele>394.0</ele><time>2026-04-27T09:54:36.783Z</time></trkpt><trkpt lat="39.72460662595829" lon="8.742760168003583"><ele>394.0</ele><time>2026-04-27T09:54:37.783Z</time></trkpt><trkpt lat="39.72449435839822" lon="8.742828337500663"><ele>394.0</ele><time>2026-04-27T09:54:38.783Z</time></trkpt><trkpt lat="39.7243917076246" lon="8.74289551135109"><ele>394.0</ele><time>2026-04-27T09:54:39.783Z</time></trkpt><trkpt lat="39.7242860724722" lon="8.742970004250349"><ele>394.0</ele><time>2026-04-27T09:54:40.783Z</time></trkpt><trkpt lat="39.72420205500748" lon="8.743037175127473"><ele>393.1666666666667</ele><time>2026-04-27T09:54:41.783Z</time></trkpt><trkpt lat="39.72413895979976" lon="8.74311404273964"><ele>392.33333333333337</ele><time>2026-04-27T09:54:42.783Z</time></trkpt><trkpt lat="39.724075765845846" lon="8.743184589170067"><ele>391.5</ele><time>2026-04-27T09:54:43.783Z</time></trkpt><trkpt lat="39.72401674423802" lon="8.743270764499778"><ele>390.66666666666663</ele><time>2026-04-27T09:54:44.783Z</time></trkpt><trkpt lat="39.72396833631284" lon="8.743365373394717"><ele>389.8333333333333</ele><time>2026-04-27T09:54:45.783Z</time></trkpt><trkpt lat="39.72393431587595" lon="8.743470961568548"><ele>389.0</ele><time>2026-04-27T09:54:46.783Z</time></trkpt><trkpt lat="39.723904550500485" lon="8.743601867667406"><ele>388.8333333333333</ele><time>2026-04-27T09:54:47.783Z</time></trkpt><trkpt lat="39.723888653188645" lon="8.743746741198587"><ele>388.66666666666663</ele><time>2026-04-27T09:54:48.783Z</time></trkpt><trkpt lat="39.72385341557739" lon="8.7438728210032"><ele>388.5</ele><time>2026-04-27T09:54:49.783Z</time></trkpt><trkpt lat="39.723817523419136" lon="8.743958171584538"><ele>388.33333333333337</ele><time>2026-04-27T09:54:50.783Z</time></trkpt><trkpt lat="39.7237861257812" lon="8.744034443962716"><ele>388.1666666666667</ele><time>2026-04-27T09:54:51.783Z</time></trkpt><trkpt lat="39.72371272364558" lon="8.74406460081087"><ele>388.0</ele><time>2026-04-27T09:54:52.783Z</time></trkpt><trkpt lat="39.72361047862705" lon="8.744059247641971"><ele>386.33333333333337</ele><time>2026-04-27T09:54:53.782Z</time></trkpt><trkpt lat="39.72351927239845" lon="8.7440892345493"><ele>384.6666666666667</ele><time>2026-04-27T09:54:54.781Z</time></trkpt><trkpt lat="39.723451319371925" lon="8.744136733457555"><ele>383.0</ele><time>2026-04-27T09:54:55.781Z</time></trkpt><trkpt lat="39.723381613774066" lon="8.74416167277678"><ele>381.33333333333337</ele><time>2026-04-27T09:54:56.781Z</time></trkpt><trkpt lat="39.72334361629981" lon="8.744260965842063"><ele>379.6666666666667</ele><time>2026-04-27T09:54:57.781Z</time></trkpt><trkpt lat="39.72329688820683" lon="8.744391779618386"><ele>378.0</ele><time>2026-04-27T09:54:58.781Z</time></trkpt><trkpt lat="39.72325620659428" lon="8.744530049848041"><ele>377.0</ele><time>2026-04-27T09:54:59.781Z</time></trkpt><trkpt lat="39.723204731409915" lon="8.74466142390057"><ele>376.0</ele><time>2026-04-27T09:55:00.781Z</time></trkpt><trkpt lat="39.72315981673067" lon="8.744791242343107"><ele>375.0</ele><time>2026-04-27T09:55:01.781Z</time></trkpt><trkpt lat="39.72310066072276" lon="8.744918497607824"><ele>374.0</ele><time>2026-04-27T09:55:02.781Z</time></trkpt><trkpt lat="39.72303038113092" lon="8.745052677195506"><ele>374.0</ele><time>2026-04-27T09:55:03.781Z</time></trkpt><trkpt lat="39.72296639043309" lon="8.745174852860401"><ele>374.0</ele><time>2026-04-27T09:55:04.781Z</time></trkpt><trkpt lat="39.72290171258568" lon="8.745298342580877"><ele>374.0</ele><time>2026-04-27T09:55:05.781Z</time></trkpt><trkpt lat="39.72283606571166" lon="8.745423682472678"><ele>374.0</ele><time>2026-04-27T09:55:06.78Z</time></trkpt><trkpt lat="39.72277728739612" lon="8.745535908190153"><ele>374.5</ele><time>2026-04-27T09:55:07.78Z</time></trkpt><trkpt lat="39.72278585425193" lon="8.745677425384965"><ele>375.0</ele><time>2026-04-27T09:55:08.78Z</time></trkpt><trkpt lat="39.722761167816685" lon="8.745761452999734"><ele>375.5</ele><time>2026-04-27T09:55:09.78Z</time></trkpt><trkpt lat="39.7227187490824" lon="8.74583847415556"><ele>376.0</ele><time>2026-04-27T09:55:11.78Z</time></trkpt><trkpt lat="39.72266182485074" lon="8.745784286937814"><ele>376.5</ele><time>2026-04-27T09:55:13.78Z</time></trkpt><trkpt lat="39.7226547972985" lon="8.745664746497697"><ele>377.0</ele><time>2026-04-27T09:55:15.78Z</time></trkpt><trkpt lat="39.72266608199336" lon="8.745550703512533"><ele>372.20000000000005</ele><time>2026-04-27T09:55:16.78Z</time></trkpt><trkpt lat="39.722677416311726" lon="8.745433855061606"><ele>367.4</ele><time>2026-04-27T09:55:17.78Z</time></trkpt><trkpt lat="39.722665987605" lon="8.745307437216562"><ele>362.6</ele><time>2026-04-27T09:55:18.78Z</time></trkpt><trkpt lat="39.72264484843469" lon="8.745180363401536"><ele>357.79999999999995</ele><time>2026-04-27T09:55:19.78Z</time></trkpt><trkpt lat="39.72262716784476" lon="8.74504649043332"><ele>353.0</ele><time>2026-04-27T09:55:20.78Z</time></trkpt><trkpt lat="39.722619908081825" lon="8.744946363287266"><ele>353.0</ele><time>2026-04-27T09:55:21.78Z</time></trkpt><trkpt lat="39.72256967754658" lon="8.74483131353104"><ele>353.0</ele><time>2026-04-27T09:55:23.78Z</time></trkpt><trkpt lat="39.72242674590426" lon="8.744879710137004"><ele>353.0</ele><time>2026-04-27T09:55:25.78Z</time></trkpt><trkpt lat="39.722373698845594" lon="8.74496229218605"><ele>353.0</ele><time>2026-04-27T09:55:26.78Z</time></trkpt><trkpt lat="39.722343826258715" lon="8.745077435322926"><ele>353.0</ele><time>2026-04-27T09:55:27.78Z</time></trkpt><trkpt lat="39.722348484456575" lon="8.74521656399757"><ele>351.59999999999997</ele><time>2026-04-27T09:55:28.78Z</time></trkpt><trkpt lat="39.72234104272365" lon="8.74534558851525"><ele>350.2</ele><time>2026-04-27T09:55:29.78Z</time></trkpt><trkpt lat="39.722333040330206" lon="8.74548433375644"><ele>348.8</ele><time>2026-04-27T09:55:30.78Z</time></trkpt><trkpt lat="39.72235792706321" lon="8.745634421308115"><ele>347.4</ele><time>2026-04-27T09:55:31.78Z</time></trkpt><trkpt lat="39.72235068570107" lon="8.745780905139913"><ele>346.0</ele><time>2026-04-27T09:55:32.78Z</time></trkpt><trkpt lat="39.72234427170174" lon="8.74590903953607"><ele>346.0</ele><time>2026-04-27T09:55:33.78Z</time></trkpt><trkpt lat="39.7223338585718" lon="8.746021183208121"><ele>346.0</ele><time>2026-04-27T09:55:34.78Z</time></trkpt><trkpt lat="39.7223218341279" lon="8.74611787402677"><ele>346.0</ele><time>2026-04-27T09:55:35.78Z</time></trkpt><trkpt lat="39.72225417883616" lon="8.746212973860509"><ele>346.0</ele><time>2026-04-27T09:55:37.78Z</time></trkpt><trkpt lat="39.72219721414966" lon="8.746122750182147"><ele>346.0</ele><time>2026-04-27T09:55:39.78Z</time></trkpt><trkpt lat="39.72219657049183" lon="8.745929808760595"><ele>346.0</ele><time>2026-04-27T09:55:41.78Z</time></trkpt><trkpt lat="39.72221483450719" lon="8.745798670658678"><ele>346.0</ele><time>2026-04-27T09:55:42.78Z</time></trkpt><trkpt lat="39.72220993559942" lon="8.745682912007803"><ele>346.0</ele><time>2026-04-27T09:55:43.78Z</time></trkpt><trkpt lat="39.72220214680707" lon="8.745581056164289"><ele>346.0</ele><time>2026-04-27T09:55:45.78Z</time></trkpt><trkpt lat="39.72211747355802" lon="8.745565986622788"><ele>346.0</ele><time>2026-04-27T09:55:47.779Z</time></trkpt><trkpt lat="39.72208640588014" lon="8.74567095272448"><ele>346.0</ele><time>2026-04-27T09:55:49.779Z</time></trkpt><trkpt lat="39.72210092511156" lon="8.745751483473432"><ele>346.0</ele><time>2026-04-27T09:55:50.779Z</time></trkpt><trkpt lat="39.72210824827172" lon="8.745858520921349"><ele>346.0</ele><time>2026-04-27T09:55:51.779Z</time></trkpt><trkpt lat="39.722100420915964" lon="8.745969731313366"><ele>346.0</ele><time>2026-04-27T09:55:52.779Z</time></trkpt><trkpt lat="39.722088821993786" lon="8.746062985177534"><ele>346.0</ele><time>2026-04-27T09:55:53.779Z</time></trkpt><trkpt lat="39.722045792852214" lon="8.74616039646131"><ele>346.0</ele><time>2026-04-27T09:55:55.779Z</time></trkpt><trkpt lat="39.72197090419279" lon="8.746137997247667"><ele>346.0</ele><time>2026-04-27T09:55:57.779Z</time></trkpt><trkpt lat="39.72195382677923" lon="8.745964162033257"><ele>346.0</ele><time>2026-04-27T09:55:59.779Z</time></trkpt><trkpt lat="39.72194681192919" lon="8.74584890341967"><ele>346.0</ele><time>2026-04-27T09:56:01.779Z</time></trkpt><trkpt lat="39.721889314558936" lon="8.74591547690905"><ele>346.0</ele><time>2026-04-27T09:56:03.779Z</time></trkpt><trkpt lat="39.721897613526984" lon="8.74600623929771"><ele>346.0</ele><time>2026-04-27T09:56:04.779Z</time></trkpt><trkpt lat="39.721913230386065" lon="8.746099637759714"><ele>346.0</ele><time>2026-04-27T09:56:05.779Z</time></trkpt><trkpt lat="39.721936412338266" lon="8.746207484839173"><ele>346.0</ele><time>2026-04-27T09:56:06.779Z</time></trkpt><trkpt lat="39.721793763569" lon="8.74619281795987"><ele>339.40000000000003</ele><time>2026-04-27T09:56:08.779Z</time></trkpt><trkpt lat="39.72168910741324" lon="8.746133153683221"><ele>332.8</ele><time>2026-04-27T09:56:10.779Z</time></trkpt><trkpt lat="39.72166951803303" lon="8.746044609361793"><ele>326.20000000000005</ele><time>2026-04-27T09:56:11.779Z</time></trkpt><trkpt lat="39.72164097706362" lon="8.745952079190877"><ele>319.6</ele><time>2026-04-27T09:56:12.779Z</time></trkpt><trkpt lat="39.72154129020913" lon="8.74592656892894"><ele>313.0</ele><time>2026-04-27T09:56:14.779Z</time></trkpt><trkpt lat="39.72145948961042" lon="8.746019691715095"><ele>313.0</ele><time>2026-04-27T09:56:16.779Z</time></trkpt><trkpt lat="39.72144801995988" lon="8.746100675885982"><ele>313.0</ele><time>2026-04-27T09:56:17.779Z</time></trkpt><trkpt lat="39.72142948154383" lon="8.746188750401814"><ele>313.0</ele><time>2026-04-27T09:56:18.779Z</time></trkpt><trkpt lat="39.72130870837151" lon="8.746244296171643"><ele>313.0</ele><time>2026-04-27T09:56:20.779Z</time></trkpt><trkpt lat="39.7212078919911" lon="8.74624388262365"><ele>313.0</ele><time>2026-04-27T09:56:21.779Z</time></trkpt><trkpt lat="39.721107251517935" lon="8.746256508650124"><ele>307.25</ele><time>2026-04-27T09:56:22.779Z</time></trkpt><trkpt lat="39.721005374537995" lon="8.746289153428346"><ele>301.5</ele><time>2026-04-27T09:56:23.779Z</time></trkpt><trkpt lat="39.72092728281452" lon="8.746148476824981"><ele>295.75</ele><time>2026-04-27T09:56:24.779Z</time></trkpt><trkpt lat="39.72081297643142" lon="8.746149392243296"><ele>290.0</ele><time>2026-04-27T09:56:25.779Z</time></trkpt><trkpt lat="39.72070700156814" lon="8.746171181230746"><ele>290.0</ele><time>2026-04-27T09:56:26.779Z</time></trkpt><trkpt lat="39.72061218580209" lon="8.746221380622634"><ele>290.0</ele><time>2026-04-27T09:56:27.779Z</time></trkpt><trkpt lat="39.72051662725272" lon="8.746295078052075"><ele>290.0</ele><time>2026-04-27T09:56:28.779Z</time></trkpt><trkpt lat="39.72042860315527" lon="8.746385145793424"><ele>290.0</ele><time>2026-04-27T09:56:29.779Z</time></trkpt><trkpt lat="39.72035310798621" lon="8.74648438160187"><ele>290.0</ele><time>2026-04-27T09:56:30.779Z</time></trkpt><trkpt lat="39.72029134265096" lon="8.74657962812425"><ele>286.6</ele><time>2026-04-27T09:56:31.778Z</time></trkpt><trkpt lat="39.720231027658144" lon="8.746694509619248"><ele>283.2</ele><time>2026-04-27T09:56:32.778Z</time></trkpt><trkpt lat="39.720184707698245" lon="8.746812951960992"><ele>279.8</ele><time>2026-04-27T09:56:33.778Z</time></trkpt><trkpt lat="39.72014536096349" lon="8.7469397107463"><ele>276.4</ele><time>2026-04-27T09:56:34.778Z</time></trkpt><trkpt lat="39.72010629605529" lon="8.74707739448085"><ele>273.0</ele><time>2026-04-27T09:56:35.778Z</time></trkpt><trkpt lat="39.72006488667909" lon="8.747204007926891"><ele>273.0</ele><time>2026-04-27T09:56:36.778Z</time></trkpt><trkpt lat="39.72001829477804" lon="8.747331178696378"><ele>273.0</ele><time>2026-04-27T09:56:37.778Z</time></trkpt><trkpt lat="39.71997841468635" lon="8.747460979466046"><ele>273.0</ele><time>2026-04-27T09:56:38.778Z</time></trkpt><trkpt lat="39.719939130687656" lon="8.747577278143938"><ele>273.0</ele><time>2026-04-27T09:56:39.778Z</time></trkpt><trkpt lat="39.71991276774318" lon="8.747679912482388"><ele>273.0</ele><time>2026-04-27T09:56:40.778Z</time></trkpt><trkpt lat="39.719907201492816" lon="8.74778383898099"><ele>272.1666666666667</ele><time>2026-04-27T09:56:41.778Z</time></trkpt><trkpt lat="39.71992138700408" lon="8.747880472437748"><ele>271.3333333333333</ele><time>2026-04-27T09:56:42.778Z</time></trkpt><trkpt lat="39.7199420505882" lon="8.747975003672746"><ele>270.5</ele><time>2026-04-27T09:56:43.778Z</time></trkpt><trkpt lat="39.719934130807246" lon="8.748083431002161"><ele>269.66666666666663</ele><time>2026-04-27T09:56:44.778Z</time></trkpt><trkpt lat="39.719941939477" lon="8.748242770596967"><ele>268.8333333333333</ele><time>2026-04-27T09:56:46.778Z</time></trkpt><trkpt lat="39.719918173895195" lon="8.748335510884479"><ele>268.0</ele><time>2026-04-27T09:56:47.778Z</time></trkpt><trkpt lat="39.71989552456291" lon="8.748497518993137"><ele>266.0</ele><time>2026-04-27T09:56:49.778Z</time></trkpt><trkpt lat="39.71986792611345" lon="8.748662755409526"><ele>264.0</ele><time>2026-04-27T09:56:50.778Z</time></trkpt><trkpt lat="39.719841609798465" lon="8.748854668010637"><ele>262.0</ele><time>2026-04-27T09:56:51.778Z</time></trkpt><trkpt lat="39.719813604109795" lon="8.749009737767418"><ele>260.0</ele><time>2026-04-27T09:56:52.778Z</time></trkpt><trkpt lat="39.719764741981464" lon="8.749143589039276"><ele>260.0</ele><time>2026-04-27T09:56:53.778Z</time></trkpt><trkpt lat="39.719729051633465" lon="8.749274351143363"><ele>260.0</ele><time>2026-04-27T09:56:54.778Z</time></trkpt><trkpt lat="39.71968176763488" lon="8.74939256187305"><ele>260.0</ele><time>2026-04-27T09:56:55.778Z</time></trkpt><trkpt lat="39.719639781815864" lon="8.749505320380088"><ele>260.0</ele><time>2026-04-27T09:56:56.778Z</time></trkpt><trkpt lat="39.7195577441858" lon="8.749629905195292"><ele>260.0</ele><time>2026-04-27T09:56:57.778Z</time></trkpt><trkpt lat="39.71947707831373" lon="8.749738321956118"><ele>261.75</ele><time>2026-04-27T09:56:58.778Z</time></trkpt><trkpt lat="39.71938403750256" lon="8.749859878342978"><ele>263.5</ele><time>2026-04-27T09:56:59.777Z</time></trkpt><trkpt lat="39.71930022471996" lon="8.749959155062687"><ele>265.25</ele><time>2026-04-27T09:57:00.777Z</time></trkpt><trkpt lat="39.71923284194779" lon="8.750100713382277"><ele>267.0</ele><time>2026-04-27T09:57:01.777Z</time></trkpt><trkpt lat="39.7191451642645" lon="8.750220165073433"><ele>262.75</ele><time>2026-04-27T09:57:02.777Z</time></trkpt><trkpt lat="39.71907160283716" lon="8.750357141660762"><ele>258.5</ele><time>2026-04-27T09:57:03.777Z</time></trkpt><trkpt lat="39.71900561981329" lon="8.75050176281189"><ele>254.25</ele><time>2026-04-27T09:57:04.777Z</time></trkpt><trkpt lat="39.71894635860017" lon="8.750639101558653"><ele>250.0</ele><time>2026-04-27T09:57:05.777Z</time></trkpt><trkpt lat="39.71887981658709" lon="8.750764316512035"><ele>250.0</ele><time>2026-04-27T09:57:06.777Z</time></trkpt><trkpt lat="39.71880716400205" lon="8.750870958298316"><ele>250.0</ele><time>2026-04-27T09:57:07.777Z</time></trkpt><trkpt lat="39.718751018705724" lon="8.750953182078764"><ele>250.0</ele><time>2026-04-27T09:57:08.776Z</time></trkpt><trkpt lat="39.71865704264157" lon="8.750998539419497"><ele>250.0</ele><time>2026-04-27T09:57:09.777Z</time></trkpt><trkpt lat="39.71854897614737" lon="8.751018997452212"><ele>250.0</ele><time>2026-04-27T09:57:10.776Z</time></trkpt><trkpt lat="39.71842834333361" lon="8.751009887311914"><ele>250.5</ele><time>2026-04-27T09:57:11.776Z</time></trkpt><trkpt lat="39.71831544338002" lon="8.750946185404773"><ele>251.0</ele><time>2026-04-27T09:57:12.777Z</time></trkpt><trkpt lat="39.71819924919216" lon="8.75088472224424"><ele>251.5</ele><time>2026-04-27T09:57:13.777Z</time></trkpt><trkpt lat="39.71808095388446" lon="8.750851995314118"><ele>252.0</ele><time>2026-04-27T09:57:14.777Z</time></trkpt><trkpt lat="39.7179578734267" lon="8.750808831907655"><ele>252.0</ele><time>2026-04-27T09:57:15.777Z</time></trkpt><trkpt lat="39.717838124528264" lon="8.750778219107863"><ele>252.0</ele><time>2026-04-27T09:57:16.777Z</time></trkpt><trkpt lat="39.717714983911215" lon="8.750760204001434"><ele>252.0</ele><time>2026-04-27T09:57:17.777Z</time></trkpt><trkpt lat="39.71758972272881" lon="8.750780501686927"><ele>252.0</ele><time>2026-04-27T09:57:18.777Z</time></trkpt><trkpt lat="39.71747211035208" lon="8.750833182063491"><ele>251.25</ele><time>2026-04-27T09:57:19.777Z</time></trkpt><trkpt lat="39.71735439383293" lon="8.750894961493861"><ele>250.5</ele><time>2026-04-27T09:57:20.777Z</time></trkpt><trkpt lat="39.71724295125158" lon="8.750951434241864"><ele>249.75</ele><time>2026-04-27T09:57:21.777Z</time></trkpt><trkpt lat="39.71713137422596" lon="8.750990873618063"><ele>249.0</ele><time>2026-04-27T09:57:22.777Z</time></trkpt><trkpt lat="39.717018459434385" lon="8.751032118099339"><ele>248.75</ele><time>2026-04-27T09:57:23.777Z</time></trkpt><trkpt lat="39.71689150386799" lon="8.751028558497318"><ele>248.5</ele><time>2026-04-27T09:57:24.777Z</time></trkpt><trkpt lat="39.71675877544013" lon="8.751016413496403"><ele>248.25</ele><time>2026-04-27T09:57:25.777Z</time></trkpt><trkpt lat="39.71662250401949" lon="8.75100186546163"><ele>248.0</ele><time>2026-04-27T09:57:26.777Z</time></trkpt><trkpt lat="39.716478699589615" lon="8.750983047787006"><ele>248.0</ele><time>2026-04-27T09:57:27.777Z</time></trkpt><trkpt lat="39.71632846766752" lon="8.75095862875225"><ele>248.0</ele><time>2026-04-27T09:57:28.777Z</time></trkpt><trkpt lat="39.71619728210432" lon="8.750929681735617"><ele>248.0</ele><time>2026-04-27T09:57:29.776Z</time></trkpt><trkpt lat="39.71605897172989" lon="8.750905775012455"><ele>248.0</ele><time>2026-04-27T09:57:30.776Z</time></trkpt><trkpt lat="39.7159150626943" lon="8.75088566173265"><ele>245.25</ele><time>2026-04-27T09:57:31.776Z</time></trkpt><trkpt lat="39.71577070908388" lon="8.750884143039816"><ele>242.5</ele><time>2026-04-27T09:57:32.776Z</time></trkpt><trkpt lat="39.71562756798466" lon="8.750889228341698"><ele>239.75</ele><time>2026-04-27T09:57:33.776Z</time></trkpt><trkpt lat="39.715482000130514" lon="8.75089288964871"><ele>237.0</ele><time>2026-04-27T09:57:34.776Z</time></trkpt><trkpt lat="39.715342450643874" lon="8.750896666676113"><ele>235.25</ele><time>2026-04-27T09:57:35.776Z</time></trkpt><trkpt lat="39.715199083410276" lon="8.750913670370148"><ele>233.5</ele><time>2026-04-27T09:57:36.776Z</time></trkpt><trkpt lat="39.71506243102443" lon="8.750953956509822"><ele>231.75</ele><time>2026-04-27T09:57:37.776Z</time></trkpt><trkpt lat="39.71492420805831" lon="8.750999129081066"><ele>230.0</ele><time>2026-04-27T09:57:38.776Z</time></trkpt><trkpt lat="39.714781063445656" lon="8.751004752551697"><ele>230.0</ele><time>2026-04-27T09:57:39.776Z</time></trkpt><trkpt lat="39.714640492949364" lon="8.751006681474058"><ele>230.0</ele><time>2026-04-27T09:57:40.776Z</time></trkpt><trkpt lat="39.71449425907873" lon="8.751028436165695"><ele>230.0</ele><time>2026-04-27T09:57:41.776Z</time></trkpt><trkpt lat="39.7143539332746" lon="8.751062699417108"><ele>230.0</ele><time>2026-04-27T09:57:42.776Z</time></trkpt><trkpt lat="39.714219475226976" lon="8.751140842983098"><ele>223.75</ele><time>2026-04-27T09:57:43.776Z</time></trkpt><trkpt lat="39.71408347494599" lon="8.751205158838955"><ele>217.5</ele><time>2026-04-27T09:57:44.776Z</time></trkpt><trkpt lat="39.71395175448314" lon="8.751281519882774"><ele>211.25</ele><time>2026-04-27T09:57:45.776Z</time></trkpt><trkpt lat="39.71381457948038" lon="8.751328053934653"><ele>205.0</ele><time>2026-04-27T09:57:46.776Z</time></trkpt><trkpt lat="39.7136757712643" lon="8.751387162819594"><ele>203.5</ele><time>2026-04-27T09:57:47.776Z</time></trkpt><trkpt lat="39.71354327985086" lon="8.751458122815114"><ele>202.0</ele><time>2026-04-27T09:57:48.776Z</time></trkpt><trkpt lat="39.713400283296146" lon="8.751479437125695"><ele>200.5</ele><time>2026-04-27T09:57:49.776Z</time></trkpt><trkpt lat="39.71326293065456" lon="8.751512280234888"><ele>199.0</ele><time>2026-04-27T09:57:50.776Z</time></trkpt><trkpt lat="39.71312294162389" lon="8.75153748044555"><ele>199.0</ele><time>2026-04-27T09:57:51.776Z</time></trkpt><trkpt lat="39.712991826312084" lon="8.75154320439141"><ele>199.0</ele><time>2026-04-27T09:57:52.776Z</time></trkpt><trkpt lat="39.71284775627094" lon="8.75159900779209"><ele>199.0</ele><time>2026-04-27T09:57:53.776Z</time></trkpt><trkpt lat="39.71270166891266" lon="8.751642823518871"><ele>199.0</ele><time>2026-04-27T09:57:54.776Z</time></trkpt><trkpt lat="39.712562076703556" lon="8.751705964684552"><ele>198.25</ele><time>2026-04-27T09:57:55.776Z</time></trkpt><trkpt lat="39.71242951755918" lon="8.751760817082905"><ele>197.5</ele><time>2026-04-27T09:57:56.776Z</time></trkpt><trkpt lat="39.712293887588366" lon="8.75181059062953"><ele>196.75</ele><time>2026-04-27T09:57:57.776Z</time></trkpt><trkpt lat="39.712153463154266" lon="8.7518397961578"><ele>196.0</ele><time>2026-04-27T09:57:58.776Z</time></trkpt><trkpt lat="39.71201926744878" lon="8.751870442463197"><ele>193.75</ele><time>2026-04-27T09:57:59.776Z</time></trkpt><trkpt lat="39.71189737074648" lon="8.75189611923128"><ele>191.5</ele><time>2026-04-27T09:58:00.776Z</time></trkpt><trkpt lat="39.7118029001042" lon="8.751974200379106"><ele>189.25</ele><time>2026-04-27T09:58:01.776Z</time></trkpt><trkpt lat="39.7117253552534" lon="8.752046985112006"><ele>187.0</ele><time>2026-04-27T09:58:02.776Z</time></trkpt><trkpt lat="39.71163669128455" lon="8.752153006228628"><ele>187.0</ele><time>2026-04-27T09:58:03.776Z</time></trkpt><trkpt lat="39.711556970354245" lon="8.752276275470344"><ele>187.0</ele><time>2026-04-27T09:58:04.776Z</time></trkpt><trkpt lat="39.71145297125174" lon="8.752388221505052"><ele>187.0</ele><time>2026-04-27T09:58:05.776Z</time></trkpt><trkpt lat="39.71133323595829" lon="8.752540336531071"><ele>187.0</ele><time>2026-04-27T09:58:06.776Z</time></trkpt><trkpt lat="39.71117383296249" lon="8.75266065925982"><ele>189.0</ele><time>2026-04-27T09:58:07.776Z</time></trkpt><trkpt lat="39.71104953992328" lon="8.752811442788179"><ele>191.0</ele><time>2026-04-27T09:58:08.776Z</time></trkpt><trkpt lat="39.710922792411175" lon="8.75297535751473"><ele>193.0</ele><time>2026-04-27T09:58:09.776Z</time></trkpt><trkpt lat="39.71076931269046" lon="8.75306654758243"><ele>193.0</ele><time>2026-04-27T09:58:10.776Z</time></trkpt><trkpt lat="39.71063784842015" lon="8.753166389213646"><ele>193.0</ele><time>2026-04-27T09:58:11.776Z</time></trkpt><trkpt lat="39.710509116796935" lon="8.753255405919806"><ele>193.0</ele><time>2026-04-27T09:58:12.776Z</time></trkpt><trkpt lat="39.710401908094866" lon="8.753387304794346"><ele>193.0</ele><time>2026-04-27T09:58:13.776Z</time></trkpt><trkpt lat="39.710286041365556" lon="8.753519434861852"><ele>196.66666666666666</ele><time>2026-04-27T09:58:14.775Z</time></trkpt><trkpt lat="39.71017061169246" lon="8.753677774184169"><ele>200.33333333333331</ele><time>2026-04-27T09:58:15.775Z</time></trkpt><trkpt lat="39.71006413387028" lon="8.753831822710236"><ele>204.0</ele><time>2026-04-27T09:58:16.775Z</time></trkpt><trkpt lat="39.70997235385118" lon="8.753999013451388"><ele>204.0</ele><time>2026-04-27T09:58:17.775Z</time></trkpt><trkpt lat="39.70988185815253" lon="8.754187118347149"><ele>204.0</ele><time>2026-04-27T09:58:18.775Z</time></trkpt><trkpt lat="39.70978285150657" lon="8.754351387550836"><ele>204.0</ele><time>2026-04-27T09:58:19.775Z</time></trkpt><trkpt lat="39.70971604025824" lon="8.75450059488395"><ele>205.6</ele><time>2026-04-27T09:58:20.775Z</time></trkpt><trkpt lat="39.70966455006532" lon="8.754618207747233"><ele>207.2</ele><time>2026-04-27T09:58:21.775Z</time></trkpt><trkpt lat="39.7096241693042" lon="8.754715534695771"><ele>208.79999999999998</ele><time>2026-04-27T09:58:22.775Z</time></trkpt><trkpt lat="39.709596158843674" lon="8.754796386829423"><ele>210.39999999999998</ele><time>2026-04-27T09:58:23.775Z</time></trkpt><trkpt lat="39.70955919305627" lon="8.754880515522972"><ele>212.0</ele><time>2026-04-27T09:58:25.775Z</time></trkpt><trkpt lat="39.709435367158875" lon="8.754970373055434"><ele>211.33333333333334</ele><time>2026-04-27T09:58:27.775Z</time></trkpt><trkpt lat="39.70936821593267" lon="8.754972528693527"><ele>210.66666666666669</ele><time>2026-04-27T09:58:29.775Z</time></trkpt><trkpt lat="39.70934907736798" lon="8.754593901317683"><ele>210.0</ele><time>2026-04-27T10:00:26.771Z</time></trkpt><trkpt lat="39.70931417570341" lon="8.754460053847755"><ele>210.0</ele><time>2026-04-27T10:00:28.771Z</time></trkpt><trkpt lat="39.709292219886194" lon="8.754371612273024"><ele>210.0</ele><time>2026-04-27T10:00:29.771Z</time></trkpt><trkpt lat="39.70926755390547" lon="8.754280968840817"><ele>210.0</ele><time>2026-04-27T10:00:30.771Z</time></trkpt><trkpt lat="39.709244302208006" lon="8.754190958773568"><ele>210.0</ele><time>2026-04-27T10:00:31.771Z</time></trkpt><trkpt lat="39.70922254715304" lon="8.754093344779418"><ele>210.0</ele><time>2026-04-27T10:00:32.771Z</time></trkpt><trkpt lat="39.709189863860324" lon="8.753993949716156"><ele>210.0</ele><time>2026-04-27T10:00:33.771Z</time></trkpt><trkpt lat="39.70914568437266" lon="8.753888618584682"><ele>210.0</ele><time>2026-04-27T10:00:34.771Z</time></trkpt><trkpt lat="39.7090821327563" lon="8.753782928439968"><ele>210.0</ele><time>2026-04-27T10:00:35.771Z</time></trkpt><trkpt lat="39.70902026411791" lon="8.753693917758026"><ele>210.0</ele><time>2026-04-27T10:00:36.771Z</time></trkpt><trkpt lat="39.70895758459088" lon="8.75361428049949"><ele>210.0</ele><time>2026-04-27T10:00:37.77Z</time></trkpt><trkpt lat="39.70889476369022" lon="8.753537211023644"><ele>210.0</ele><time>2026-04-27T10:00:38.77Z</time></trkpt><trkpt lat="39.70882593788201" lon="8.753460022395057"><ele>210.16666666666666</ele><time>2026-04-27T10:00:39.77Z</time></trkpt><trkpt lat="39.70875564841436" lon="8.753395264576808"><ele>210.33333333333331</ele><time>2026-04-27T10:00:40.77Z</time></trkpt><trkpt lat="39.70869097678707" lon="8.753346286676688"><ele>210.5</ele><time>2026-04-27T10:00:41.77Z</time></trkpt><trkpt lat="39.70861882120373" lon="8.75330355545881"><ele>210.66666666666666</ele><time>2026-04-27T10:00:42.77Z</time></trkpt><trkpt lat="39.70854789097317" lon="8.753259076102971"><ele>210.83333333333331</ele><time>2026-04-27T10:00:43.77Z</time></trkpt><trkpt lat="39.70846010443727" lon="8.753196479037234"><ele>211.0</ele><time>2026-04-27T10:00:44.77Z</time></trkpt><trkpt lat="39.70838245583525" lon="8.75315456854696"><ele>210.99999999999997</ele><time>2026-04-27T10:00:45.77Z</time></trkpt><trkpt lat="39.708311774873685" lon="8.753121585187545"><ele>211.0</ele><time>2026-04-27T10:00:46.77Z</time></trkpt><trkpt lat="39.70824877855246" lon="8.75308296296779"><ele>211.0</ele><time>2026-04-27T10:00:47.77Z</time></trkpt><trkpt lat="39.70819134146323" lon="8.75304025786118"><ele>211.0</ele><time>2026-04-27T10:00:48.77Z</time></trkpt><trkpt lat="39.70813308906679" lon="8.75300811884344"><ele>210.99999999999997</ele><time>2026-04-27T10:00:49.77Z</time></trkpt><trkpt lat="39.7080227396374" lon="8.75295916298204"><ele>211.0</ele><time>2026-04-27T10:00:51.77Z</time></trkpt><trkpt lat="39.7078902550127" lon="8.752920681412927"><ele>211.0</ele><time>2026-04-27T10:00:53.77Z</time></trkpt><trkpt lat="39.707826384100585" lon="8.75289629701911"><ele>211.0</ele><time>2026-04-27T10:00:54.77Z</time></trkpt><trkpt lat="39.70771572295847" lon="8.75287027892247"><ele>211.0</ele><time>2026-04-27T10:00:56.77Z</time></trkpt><trkpt lat="39.70761824133256" lon="8.752859748518635"><ele>211.0</ele><time>2026-04-27T10:00:58.77Z</time></trkpt><trkpt lat="39.7074987385171" lon="8.752859357431051"><ele>211.0</ele><time>2026-04-27T10:01:00.77Z</time></trkpt><trkpt lat="39.707384404394" lon="8.752843089361885"><ele>210.20000000000002</ele><time>2026-04-27T10:01:02.77Z</time></trkpt><trkpt lat="39.70729463734969" lon="8.75275677994313"><ele>209.4</ele><time>2026-04-27T10:01:04.77Z</time></trkpt><trkpt lat="39.707198239234266" lon="8.752686694191892"><ele>208.6</ele><time>2026-04-27T10:01:06.77Z</time></trkpt><trkpt lat="39.707112843201216" lon="8.752636679486518"><ele>207.8</ele><time>2026-04-27T10:01:08.77Z</time></trkpt><trkpt lat="39.707041144180195" lon="8.752607736324027"><ele>207.0</ele><time>2026-04-27T10:01:10.769Z</time></trkpt><trkpt lat="39.70696793418539" lon="8.752590939637184"><ele>204.0</ele><time>2026-04-27T10:01:12.769Z</time></trkpt><trkpt lat="39.70687298687674" lon="8.752582472948317"><ele>201.0</ele><time>2026-04-27T10:01:14.768Z</time></trkpt><trkpt lat="39.706791217844135" lon="8.752578084111775"><ele>198.0</ele><time>2026-04-27T10:01:16.769Z</time></trkpt><trkpt lat="39.706718010078646" lon="8.752572964585811"><ele>195.0</ele><time>2026-04-27T10:01:18.768Z</time></trkpt><trkpt lat="39.70663250177664" lon="8.752561189469915"><ele>192.0</ele><time>2026-04-27T10:01:20.769Z</time></trkpt><trkpt lat="39.70654361886733" lon="8.752544171578608"><ele>189.0</ele><time>2026-04-27T10:01:22.769Z</time></trkpt><trkpt lat="39.70644734008053" lon="8.75253649061844"><ele>189.0</ele><time>2026-04-27T10:01:24.768Z</time></trkpt><trkpt lat="39.70636726845036" lon="8.75252531212132"><ele>189.0</ele><time>2026-04-27T10:01:26.768Z</time></trkpt><trkpt lat="39.706293329969796" lon="8.752525302011119"><ele>189.0</ele><time>2026-04-27T10:01:28.768Z</time></trkpt><trkpt lat="39.706216919879196" lon="8.75251514262011"><ele>189.0</ele><time>2026-04-27T10:01:30.768Z</time></trkpt><trkpt lat="39.70613402396923" lon="8.752505181357774"><ele>189.0</ele><time>2026-04-27T10:01:32.768Z</time></trkpt><trkpt lat="39.70604603825045" lon="8.75247613154892"><ele>189.0</ele><time>2026-04-27T10:01:35.768Z</time></trkpt><trkpt lat="39.70597853544534" lon="8.752466916962392"><ele>187.33333333333334</ele><time>2026-04-27T10:01:38.768Z</time></trkpt><trkpt lat="39.705903035736064" lon="8.752464342132663"><ele>185.66666666666666</ele><time>2026-04-27T10:01:40.768Z</time></trkpt><trkpt lat="39.70581690275083" lon="8.752482057742876"><ele>184.0</ele><time>2026-04-27T10:01:43.768Z</time></trkpt><trkpt lat="39.705727179577835" lon="8.75245193213135"><ele>182.33333333333331</ele><time>2026-04-27T10:01:46.767Z</time></trkpt><trkpt lat="39.70564023328216" lon="8.752444343804113"><ele>180.66666666666666</ele><time>2026-04-27T10:01:48.767Z</time></trkpt><trkpt lat="39.705554292690486" lon="8.752423019544585"><ele>179.0</ele><time>2026-04-27T10:01:51.767Z</time></trkpt><trkpt lat="39.7054612976891" lon="8.752371530936514"><ele>179.0</ele><time>2026-04-27T10:01:53.767Z</time></trkpt><trkpt lat="39.705405944555864" lon="8.752319668056678"><ele>179.0</ele><time>2026-04-27T10:01:55.767Z</time></trkpt><trkpt lat="39.705322221574164" lon="8.752279205744466"><ele>179.0</ele><time>2026-04-27T10:01:58.767Z</time></trkpt><trkpt lat="39.70525576423076" lon="8.752223105376709"><ele>179.0</ele><time>2026-04-27T10:01:59.767Z</time></trkpt><trkpt lat="39.705190198736865" lon="8.752175973150049"><ele>179.0</ele><time>2026-04-27T10:02:00.767Z</time></trkpt><trkpt lat="39.70509167198209" lon="8.752105745681448"><ele>179.0</ele><time>2026-04-27T10:02:02.767Z</time></trkpt><trkpt lat="39.70502589219016" lon="8.7520757707761"><ele>177.33333333333331</ele><time>2026-04-27T10:02:03.767Z</time></trkpt><trkpt lat="39.70495415570352" lon="8.752046403869493"><ele>175.66666666666666</ele><time>2026-04-27T10:02:04.767Z</time></trkpt><trkpt lat="39.704826770082555" lon="8.752043689319"><ele>174.0</ele><time>2026-04-27T10:02:06.767Z</time></trkpt><trkpt lat="39.70475306010807" lon="8.752026247666036"><ele>172.33333333333334</ele><time>2026-04-27T10:02:07.767Z</time></trkpt><trkpt lat="39.70468397602281" lon="8.751975182988033"><ele>170.66666666666669</ele><time>2026-04-27T10:02:08.767Z</time></trkpt><trkpt lat="39.70459886345015" lon="8.751931185932241"><ele>169.0</ele><time>2026-04-27T10:02:09.767Z</time></trkpt><trkpt lat="39.7045439470744" lon="8.751886230879094"><ele>169.5</ele><time>2026-04-27T10:02:10.767Z</time></trkpt><trkpt lat="39.70448250023527" lon="8.751868177010822"><ele>170.0</ele><time>2026-04-27T10:02:11.767Z</time></trkpt><trkpt lat="39.70441807033401" lon="8.751827145151433"><ele>170.5</ele><time>2026-04-27T10:02:12.767Z</time></trkpt><trkpt lat="39.704349831456156" lon="8.751808062781889"><ele>171.0</ele><time>2026-04-27T10:02:13.767Z</time></trkpt><trkpt lat="39.70424917907976" lon="8.751786913732763"><ele>171.5</ele><time>2026-04-27T10:02:15.767Z</time></trkpt><trkpt lat="39.7041791811032" lon="8.751799982080735"><ele>172.0</ele><time>2026-04-27T10:02:17.767Z</time></trkpt><trkpt lat="39.70410190629347" lon="8.751776738766262"><ele>170.0</ele><time>2026-04-27T10:02:19.767Z</time></trkpt><trkpt lat="39.7039926237898" lon="8.75180933073661"><ele>168.0</ele><time>2026-04-27T10:02:21.767Z</time></trkpt><trkpt lat="39.703943569264375" lon="8.751861034204552"><ele>166.0</ele><time>2026-04-27T10:02:22.767Z</time></trkpt><trkpt lat="39.70385014939389" lon="8.751932478403965"><ele>164.0</ele><time>2026-04-27T10:02:24.767Z</time></trkpt><trkpt lat="39.70378991804528" lon="8.751841813283324"><ele>162.0</ele><time>2026-04-27T10:02:27.767Z</time></trkpt><trkpt lat="39.703806133459345" lon="8.751737928868323"><ele>162.0</ele><time>2026-04-27T10:02:28.767Z</time></trkpt><trkpt lat="39.70380336732395" lon="8.751623706558835"><ele>162.0</ele><time>2026-04-27T10:02:29.767Z</time></trkpt><trkpt lat="39.70380185266383" lon="8.751517754650989"><ele>162.0</ele><time>2026-04-27T10:02:30.766Z</time></trkpt><trkpt lat="39.70375120991561" lon="8.75142649716005"><ele>162.0</ele><time>2026-04-27T10:02:32.766Z</time></trkpt><trkpt lat="39.703673570176704" lon="8.751453329705267"><ele>162.0</ele><time>2026-04-27T10:02:33.766Z</time></trkpt><trkpt lat="39.70360146106675" lon="8.751443825781077"><ele>162.0</ele><time>2026-04-27T10:02:45.766Z</time></trkpt><trkpt lat="39.70352552453573" lon="8.751381988296007"><ele>161.16666666666666</ele><time>2026-04-27T10:02:48.766Z</time></trkpt><trkpt lat="39.703452086856956" lon="8.75136096578326"><ele>160.33333333333334</ele><time>2026-04-27T10:02:51.766Z</time></trkpt><trkpt lat="39.70340190214304" lon="8.751301689020336"><ele>159.5</ele><time>2026-04-27T10:02:54.766Z</time></trkpt><trkpt lat="39.70334476733123" lon="8.751231477851016"><ele>158.66666666666669</ele><time>2026-04-27T10:02:56.766Z</time></trkpt><trkpt lat="39.703280498241085" lon="8.751159991158245"><ele>157.83333333333334</ele><time>2026-04-27T10:02:58.766Z</time></trkpt><trkpt lat="39.70320516564387" lon="8.751100625316198"><ele>157.0</ele><time>2026-04-27T10:03:00.766Z</time></trkpt><trkpt lat="39.70312264098064" lon="8.751046627202216"><ele>156.66666666666669</ele><time>2026-04-27T10:03:02.766Z</time></trkpt><trkpt lat="39.703052156244375" lon="8.750973698283568"><ele>156.33333333333334</ele><time>2026-04-27T10:03:04.766Z</time></trkpt><trkpt lat="39.70297431144591" lon="8.750947443604566"><ele>156.0</ele><time>2026-04-27T10:03:06.766Z</time></trkpt><trkpt lat="39.70289582209361" lon="8.750905318059058"><ele>155.66666666666666</ele><time>2026-04-27T10:03:08.766Z</time></trkpt><trkpt lat="39.70282373883553" lon="8.750881771147393"><ele>155.33333333333331</ele><time>2026-04-27T10:03:11.766Z</time></trkpt><trkpt lat="39.70274125887783" lon="8.750840635829448"><ele>155.0</ele><time>2026-04-27T10:03:13.766Z</time></trkpt><trkpt lat="39.70266853969818" lon="8.750775070788947"><ele>152.5</ele><time>2026-04-27T10:03:14.766Z</time></trkpt><trkpt lat="39.702538734145094" lon="8.750629080074052"><ele>150.0</ele><time>2026-04-27T10:03:15.765Z</time></trkpt><trkpt lat="39.70239132247317" lon="8.750513125879364"><ele>147.5</ele><time>2026-04-27T10:03:16.764Z</time></trkpt><trkpt lat="39.702302596106534" lon="8.750442609343024"><ele>145.0</ele><time>2026-04-27T10:03:17.765Z</time></trkpt><trkpt lat="39.702211609499166" lon="8.750366949741045"><ele>145.0</ele><time>2026-04-27T10:03:18.765Z</time></trkpt><trkpt lat="39.7021480365503" lon="8.750297071414462"><ele>145.0</ele><time>2026-04-27T10:03:19.764Z</time></trkpt><trkpt lat="39.70209927561088" lon="8.750202432373946"><ele>145.0</ele><time>2026-04-27T10:03:20.764Z</time></trkpt><trkpt lat="39.702076277860115" lon="8.750066305186978"><ele>145.0</ele><time>2026-04-27T10:03:21.764Z</time></trkpt><trkpt lat="39.70210469153876" lon="8.74993820512067"><ele>145.0</ele><time>2026-04-27T10:03:23.764Z</time></trkpt><trkpt lat="39.702098111044634" lon="8.749813057685671"><ele>144.83333333333334</ele><time>2026-04-27T10:03:24.764Z</time></trkpt><trkpt lat="39.70205111852276" lon="8.749679296830488"><ele>144.66666666666669</ele><time>2026-04-27T10:03:26.764Z</time></trkpt><trkpt lat="39.70203905130226" lon="8.749584152039157"><ele>144.5</ele><time>2026-04-27T10:03:27.764Z</time></trkpt><trkpt lat="39.70200824653954" lon="8.749508339787726"><ele>144.33333333333334</ele><time>2026-04-27T10:03:28.764Z</time></trkpt><trkpt lat="39.70195462812522" lon="8.74944457183536"><ele>144.16666666666666</ele><time>2026-04-27T10:03:29.764Z</time></trkpt><trkpt lat="39.70188374587538" lon="8.749322150868519"><ele>144.0</ele><time>2026-04-27T10:03:31.764Z</time></trkpt><trkpt lat="39.70183619391221" lon="8.7492590245159"><ele>141.8</ele><time>2026-04-27T10:03:32.764Z</time></trkpt><trkpt lat="39.70175201796132" lon="8.749158382243365"><ele>139.60000000000002</ele><time>2026-04-27T10:03:34.764Z</time></trkpt><trkpt lat="39.70167623160876" lon="8.749066024688428"><ele>137.4</ele><time>2026-04-27T10:03:36.764Z</time></trkpt><trkpt lat="39.70161242109159" lon="8.748958468909"><ele>135.20000000000002</ele><time>2026-04-27T10:03:38.764Z</time></trkpt><trkpt lat="39.70156630128531" lon="8.74889418841416"><ele>133.0</ele><time>2026-04-27T10:03:39.764Z</time></trkpt><trkpt lat="39.70151603259842" lon="8.748821370835074"><ele>133.0</ele><time>2026-04-27T10:03:40.764Z</time></trkpt><trkpt lat="39.701464904360776" lon="8.748747308145685"><ele>133.0</ele><time>2026-04-27T10:03:41.764Z</time></trkpt><trkpt lat="39.70141298647729" lon="8.748671126393262"><ele>133.0</ele><time>2026-04-27T10:03:42.764Z</time></trkpt><trkpt lat="39.701362739530325" lon="8.748596867576685"><ele>133.0</ele><time>2026-04-27T10:03:43.764Z</time></trkpt><trkpt lat="39.70131248601624" lon="8.748522599023422"><ele>133.0</ele><time>2026-04-27T10:03:44.764Z</time></trkpt><trkpt lat="39.70126834507024" lon="8.748457364105638"><ele>133.0</ele><time>2026-04-27T10:03:45.764Z</time></trkpt><trkpt lat="39.701215325988464" lon="8.748380388184131"><ele>133.75</ele><time>2026-04-27T10:03:47.764Z</time></trkpt><trkpt lat="39.70113747233912" lon="8.748261504749722"><ele>134.5</ele><time>2026-04-27T10:03:50.764Z</time></trkpt><trkpt lat="39.70108055691444" lon="8.74813975829502"><ele>135.25</ele><time>2026-04-27T10:03:52.764Z</time></trkpt><trkpt lat="39.7010070407568" lon="8.747979631149374"><ele>136.0</ele><time>2026-04-27T10:03:54.764Z</time></trkpt><trkpt lat="39.70094274039991" lon="8.747894760846862"><ele>134.83333333333334</ele><time>2026-04-27T10:03:55.764Z</time></trkpt><trkpt lat="39.7008941964163" lon="8.747791377307369"><ele>133.66666666666669</ele><time>2026-04-27T10:03:56.764Z</time></trkpt><trkpt lat="39.70082760475128" lon="8.747708171617075"><ele>132.5</ele><time>2026-04-27T10:03:57.764Z</time></trkpt><trkpt lat="39.70076140216645" lon="8.74763288185974"><ele>131.33333333333334</ele><time>2026-04-27T10:03:58.764Z</time></trkpt><trkpt lat="39.70071122673125" lon="8.747575819219037"><ele>130.16666666666666</ele><time>2026-04-27T10:03:59.764Z</time></trkpt><trkpt lat="39.70065800063406" lon="8.747513385560033"><ele>129.0</ele><time>2026-04-27T10:04:00.764Z</time></trkpt><trkpt lat="39.70059475256249" lon="8.747460072458438"><ele>128.4</ele><time>2026-04-27T10:04:01.764Z</time></trkpt><trkpt lat="39.70053523751512" lon="8.747360490278737"><ele>127.80000000000001</ele><time>2026-04-27T10:04:02.763Z</time></trkpt><trkpt lat="39.700477178965336" lon="8.747287947777588"><ele>127.19999999999999</ele><time>2026-04-27T10:04:03.763Z</time></trkpt><trkpt lat="39.700423612380845" lon="8.747221531456466"><ele>126.6</ele><time>2026-04-27T10:04:04.763Z</time></trkpt><trkpt lat="39.700365649074314" lon="8.747160771730693"><ele>126.0</ele><time>2026-04-27T10:04:05.763Z</time></trkpt><trkpt lat="39.700274825195606" lon="8.747035606789678"><ele>125.0</ele><time>2026-04-27T10:04:07.763Z</time></trkpt><trkpt lat="39.70024815982292" lon="8.746906723260262"><ele>124.0</ele><time>2026-04-27T10:04:08.763Z</time></trkpt><trkpt lat="39.70023028315653" lon="8.746780473282548"><ele>123.0</ele><time>2026-04-27T10:04:09.763Z</time></trkpt><trkpt lat="39.70020947841223" lon="8.7466567334753"><ele>122.0</ele><time>2026-04-27T10:04:10.763Z</time></trkpt><trkpt lat="39.700206251915276" lon="8.746556161641893"><ele>121.0</ele><time>2026-04-27T10:04:11.763Z</time></trkpt><trkpt lat="39.70020628214084" lon="8.746404179388373"><ele>120.33333333333334</ele><time>2026-04-27T10:04:13.763Z</time></trkpt><trkpt lat="39.70020459003403" lon="8.746321210967976"><ele>119.66666666666667</ele><time>2026-04-27T10:04:14.763Z</time></trkpt><trkpt lat="39.70019737070112" lon="8.746228436581514"><ele>119.0</ele><time>2026-04-27T10:04:15.763Z</time></trkpt><trkpt lat="39.700186338878986" lon="8.746131733027035"><ele>118.33333333333334</ele><time>2026-04-27T10:04:16.763Z</time></trkpt><trkpt lat="39.70017188046393" lon="8.746007750061679"><ele>117.66666666666667</ele><time>2026-04-27T10:04:17.763Z</time></trkpt><trkpt lat="39.70015960191115" lon="8.745876524006203"><ele>117.0</ele><time>2026-04-27T10:04:18.763Z</time></trkpt><trkpt lat="39.70014394417681" lon="8.745728686772502"><ele>116.5</ele><time>2026-04-27T10:04:19.763Z</time></trkpt><trkpt lat="39.70013143049798" lon="8.745596892711864"><ele>116.0</ele><time>2026-04-27T10:04:20.763Z</time></trkpt><trkpt lat="39.700130544812346" lon="8.74545650736448"><ele>115.5</ele><time>2026-04-27T10:04:21.763Z</time></trkpt><trkpt lat="39.70012490067328" lon="8.745299388839447"><ele>115.0</ele><time>2026-04-27T10:04:22.763Z</time></trkpt><trkpt lat="39.70013325853624" lon="8.745136568464488"><ele>114.5</ele><time>2026-04-27T10:04:23.763Z</time></trkpt><trkpt lat="39.70014459749405" lon="8.74499012106068"><ele>114.0</ele><time>2026-04-27T10:04:24.763Z</time></trkpt><trkpt lat="39.70016183147417" lon="8.744837048755441"><ele>113.5</ele><time>2026-04-27T10:04:25.763Z</time></trkpt><trkpt lat="39.70017502883311" lon="8.744690937887878"><ele>113.0</ele><time>2026-04-27T10:04:26.763Z</time></trkpt><trkpt lat="39.700177170045585" lon="8.744538270223842"><ele>113.0</ele><time>2026-04-27T10:04:27.763Z</time></trkpt><trkpt lat="39.70019317757523" lon="8.744394313981509"><ele>113.0</ele><time>2026-04-27T10:04:28.763Z</time></trkpt><trkpt lat="39.7002186090674" lon="8.744252285447692"><ele>113.0</ele><time>2026-04-27T10:04:29.763Z</time></trkpt><trkpt lat="39.70025185732351" lon="8.744108731255546"><ele>113.0</ele><time>2026-04-27T10:04:30.763Z</time></trkpt><trkpt lat="39.700297922652" lon="8.743947747201037"><ele>114.25</ele><time>2026-04-27T10:04:31.763Z</time></trkpt><trkpt lat="39.700353266329195" lon="8.743781772850712"><ele>115.5</ele><time>2026-04-27T10:04:32.763Z</time></trkpt><trkpt lat="39.700408133478675" lon="8.743621301086348"><ele>116.75</ele><time>2026-04-27T10:04:33.763Z</time></trkpt><trkpt lat="39.70045750881579" lon="8.74346464175798"><ele>118.0</ele><time>2026-04-27T10:04:34.763Z</time></trkpt><trkpt lat="39.70051228411136" lon="8.743308159593665"><ele>115.0</ele><time>2026-04-27T10:04:35.763Z</time></trkpt><trkpt lat="39.70056126970131" lon="8.743159629333595"><ele>112.0</ele><time>2026-04-27T10:04:36.763Z</time></trkpt><trkpt lat="39.70060388522665" lon="8.743004909906405"><ele>109.0</ele><time>2026-04-27T10:04:37.763Z</time></trkpt><trkpt lat="39.700634772168115" lon="8.742853352805493"><ele>106.0</ele><time>2026-04-27T10:04:38.763Z</time></trkpt><trkpt lat="39.70064602089686" lon="8.742695929118133"><ele>104.5</ele><time>2026-04-27T10:04:39.763Z</time></trkpt><trkpt lat="39.700635532153726" lon="8.74256604281106"><ele>103.0</ele><time>2026-04-27T10:04:40.763Z</time></trkpt><trkpt lat="39.70061214741909" lon="8.742422862976127"><ele>101.5</ele><time>2026-04-27T10:04:41.763Z</time></trkpt><trkpt lat="39.70055930515935" lon="8.742242418217659"><ele>100.0</ele><time>2026-04-27T10:04:42.763Z</time></trkpt><trkpt lat="39.70051519257279" lon="8.742079206091157"><ele>100.0</ele><time>2026-04-27T10:04:43.763Z</time></trkpt><trkpt lat="39.70048249918443" lon="8.741932576067772"><ele>100.0</ele><time>2026-04-27T10:04:44.763Z</time></trkpt><trkpt lat="39.700461963010525" lon="8.741786864508578"><ele>100.0</ele><time>2026-04-27T10:04:45.763Z</time></trkpt><trkpt lat="39.70045888563276" lon="8.741639497811851"><ele>100.0</ele><time>2026-04-27T10:04:46.763Z</time></trkpt><trkpt lat="39.700446185619256" lon="8.741496917675665"><ele>99.0</ele><time>2026-04-27T10:04:47.762Z</time></trkpt><trkpt lat="39.70042883372181" lon="8.741344682811679"><ele>98.0</ele><time>2026-04-27T10:04:48.762Z</time></trkpt><trkpt lat="39.700409385781704" lon="8.741183061102694"><ele>97.0</ele><time>2026-04-27T10:04:49.762Z</time></trkpt><trkpt lat="39.7004098555162" lon="8.74103317879375"><ele>96.0</ele><time>2026-04-27T10:04:50.762Z</time></trkpt><trkpt lat="39.70042898945721" lon="8.740906666630448"><ele>95.33333333333333</ele><time>2026-04-27T10:04:51.762Z</time></trkpt><trkpt lat="39.70046681115324" lon="8.740810209312487"><ele>94.66666666666667</ele><time>2026-04-27T10:04:52.762Z</time></trkpt><trkpt lat="39.70050637216077" lon="8.740737475914102"><ele>94.0</ele><time>2026-04-27T10:04:53.762Z</time></trkpt><trkpt lat="39.70057199541293" lon="8.74067493061941"><ele>93.33333333333334</ele><time>2026-04-27T10:04:55.762Z</time></trkpt><trkpt lat="39.70064524095827" lon="8.740598333758914"><ele>92.66666666666667</ele><time>2026-04-27T10:04:58.826Z</time></trkpt><trkpt lat="39.700678718843534" lon="8.740681138323694"><ele>92.0</ele><time>2026-04-27T10:04:59.826Z</time></trkpt><trkpt lat="39.70061126746317" lon="8.740405616413431"><ele>92.0</ele><time>2026-04-27T10:05:00.826Z</time></trkpt><trkpt lat="39.700587781450714" lon="8.740296388491407"><ele>92.0</ele><time>2026-04-27T10:05:01.826Z</time></trkpt><trkpt lat="39.7005577756193" lon="8.740173263434038"><ele>92.0</ele><time>2026-04-27T10:05:02.826Z</time></trkpt><trkpt lat="39.70053498409877" lon="8.740039792873342"><ele>92.0</ele><time>2026-04-27T10:05:03.826Z</time></trkpt><trkpt lat="39.70050716276171" lon="8.7398821504764"><ele>92.0</ele><time>2026-04-27T10:05:04.826Z</time></trkpt><trkpt lat="39.70047587591331" lon="8.739721745751417"><ele>91.25</ele><time>2026-04-27T10:05:05.826Z</time></trkpt><trkpt lat="39.700448023401535" lon="8.73955093289952"><ele>90.5</ele><time>2026-04-27T10:05:06.826Z</time></trkpt><trkpt lat="39.70042088307527" lon="8.73937781826818"><ele>89.75</ele><time>2026-04-27T10:05:07.826Z</time></trkpt><trkpt lat="39.700388194651026" lon="8.73919027599802"><ele>89.0</ele><time>2026-04-27T10:05:08.826Z</time></trkpt><trkpt lat="39.7003468900796" lon="8.738980627571939"><ele>87.66666666666667</ele><time>2026-04-27T10:05:09.825Z</time></trkpt><trkpt lat="39.7003057549304" lon="8.738763635858051"><ele>86.33333333333333</ele><time>2026-04-27T10:05:10.825Z</time></trkpt><trkpt lat="39.70026717926618" lon="8.738527185022734"><ele>85.0</ele><time>2026-04-27T10:05:11.825Z</time></trkpt><trkpt lat="39.700221518655034" lon="8.738304604640536"><ele>83.66666666666666</ele><time>2026-04-27T10:05:12.825Z</time></trkpt><trkpt lat="39.70017797992952" lon="8.738072057314314"><ele>82.33333333333333</ele><time>2026-04-27T10:05:13.825Z</time></trkpt><trkpt lat="39.70013281074365" lon="8.73781374415403"><ele>81.0</ele><time>2026-04-27T10:05:14.825Z</time></trkpt><trkpt lat="39.700085256287196" lon="8.737547189918635"><ele>79.66666666666667</ele><time>2026-04-27T10:05:15.825Z</time></trkpt><trkpt lat="39.70003381804011" lon="8.737282632528126"><ele>78.33333333333334</ele><time>2026-04-27T10:05:16.825Z</time></trkpt><trkpt lat="39.69998473125863" lon="8.737031657892976"><ele>77.0</ele><time>2026-04-27T10:05:17.825Z</time></trkpt><trkpt lat="39.6999331152314" lon="8.736747338381385"><ele>75.5</ele><time>2026-04-27T10:05:18.825Z</time></trkpt><trkpt lat="39.6998844141263" lon="8.736463118076731"><ele>74.0</ele><time>2026-04-27T10:05:19.825Z</time></trkpt><trkpt lat="39.69983274971438" lon="8.73615594650396"><ele>72.5</ele><time>2026-04-27T10:05:20.825Z</time></trkpt><trkpt lat="39.69978686836924" lon="8.735824124350952"><ele>71.0</ele><time>2026-04-27T10:05:21.825Z</time></trkpt><trkpt lat="39.699727286634726" lon="8.735586514783053"><ele>71.0</ele><time>2026-04-27T10:05:22.823Z</time></trkpt><trkpt lat="39.69968266160337" lon="8.735352449256386"><ele>71.0</ele><time>2026-04-27T10:05:23.824Z</time></trkpt><trkpt lat="39.699643760167845" lon="8.735119231640496"><ele>71.0</ele><time>2026-04-27T10:05:24.824Z</time></trkpt><trkpt lat="39.699605617050956" lon="8.734874326923473"><ele>70.0</ele><time>2026-04-27T10:05:25.824Z</time></trkpt><trkpt lat="39.69952850973898" lon="8.734519995416616"><ele>69.0</ele><time>2026-04-27T10:05:26.823Z</time></trkpt><trkpt lat="39.69946836099584" lon="8.73416608869811"><ele>66.5</ele><time>2026-04-27T10:05:27.823Z</time></trkpt><trkpt lat="39.69940326021401" lon="8.733835706939296"><ele>64.0</ele><time>2026-04-27T10:05:28.823Z</time></trkpt><trkpt lat="39.699363315417635" lon="8.733570754469897"><ele>63.666666666666664</ele><time>2026-04-27T10:05:29.823Z</time></trkpt><trkpt lat="39.69931534895432" lon="8.733297914228256"><ele>63.33333333333333</ele><time>2026-04-27T10:05:30.823Z</time></trkpt><trkpt lat="39.69927334053404" lon="8.73303284297347"><ele>63.0</ele><time>2026-04-27T10:05:31.823Z</time></trkpt><trkpt lat="39.69921998477843" lon="8.732750378115277"><ele>61.0</ele><time>2026-04-27T10:05:32.823Z</time></trkpt><trkpt lat="39.6991657842445" lon="8.732456651770867"><ele>59.0</ele><time>2026-04-27T10:05:33.823Z</time></trkpt><trkpt lat="39.69910966653938" lon="8.73216113726785"><ele>58.0</ele><time>2026-04-27T10:05:34.823Z</time></trkpt><trkpt lat="39.69905485054412" lon="8.731872494535944"><ele>57.0</ele><time>2026-04-27T10:05:35.823Z</time></trkpt><trkpt lat="39.698999021935236" lon="8.73159365968911"><ele>57.0</ele><time>2026-04-27T10:05:36.823Z</time></trkpt><trkpt lat="39.6989435686984" lon="8.731307323847634"><ele>57.0</ele><time>2026-04-27T10:05:37.823Z</time></trkpt><trkpt lat="39.69888906955995" lon="8.731023164397524"><ele>56.66666666666667</ele><time>2026-04-27T10:05:38.823Z</time></trkpt><trkpt lat="39.69883715343124" lon="8.730743646451998"><ele>56.333333333333336</ele><time>2026-04-27T10:05:39.823Z</time></trkpt><trkpt lat="39.69878630090877" lon="8.730459738718398"><ele>56.0</ele><time>2026-04-27T10:05:40.823Z</time></trkpt><trkpt lat="39.69873921281884" lon="8.73017924791234"><ele>54.66666666666667</ele><time>2026-04-27T10:05:41.823Z</time></trkpt><trkpt lat="39.69869024502817" lon="8.729922840928086"><ele>53.33333333333333</ele><time>2026-04-27T10:05:42.823Z</time></trkpt><trkpt lat="39.69864552306004" lon="8.729698437843082"><ele>52.0</ele><time>2026-04-27T10:05:43.823Z</time></trkpt><trkpt lat="39.698605359651516" lon="8.729471930804081"><ele>51.33333333333333</ele><time>2026-04-27T10:05:44.823Z</time></trkpt><trkpt lat="39.698565841603326" lon="8.729236650937121"><ele>50.66666666666667</ele><time>2026-04-27T10:05:45.823Z</time></trkpt><trkpt lat="39.69851858933393" lon="8.728981080182164"><ele>50.0</ele><time>2026-04-27T10:05:46.823Z</time></trkpt><trkpt lat="39.69847388014515" lon="8.728712640136639"><ele>49.66666666666667</ele><time>2026-04-27T10:05:47.823Z</time></trkpt><trkpt lat="39.69842766669845" lon="8.728447149642943"><ele>49.33333333333333</ele><time>2026-04-27T10:05:48.823Z</time></trkpt><trkpt lat="39.698379448031424" lon="8.728187161251958"><ele>49.0</ele><time>2026-04-27T10:05:49.823Z</time></trkpt><trkpt lat="39.69833164114257" lon="8.727945599242014"><ele>48.666666666666664</ele><time>2026-04-27T10:05:50.823Z</time></trkpt><trkpt lat="39.69829468430247" lon="8.727725414048722"><ele>48.33333333333333</ele><time>2026-04-27T10:05:51.823Z</time></trkpt><trkpt lat="39.69825576581672" lon="8.727499402351267"><ele>48.0</ele><time>2026-04-27T10:05:52.823Z</time></trkpt><trkpt lat="39.69821135026678" lon="8.727271859721151"><ele>48.0</ele><time>2026-04-27T10:05:53.823Z</time></trkpt><trkpt lat="39.69816781045384" lon="8.72704157663486"><ele>48.0</ele><time>2026-04-27T10:05:54.823Z</time></trkpt><trkpt lat="39.69812915259622" lon="8.726826776080644"><ele>48.0</ele><time>2026-04-27T10:05:55.823Z</time></trkpt><trkpt lat="39.698090759398426" lon="8.726620146516165"><ele>47.666666666666664</ele><time>2026-04-27T10:05:56.823Z</time></trkpt><trkpt lat="39.698049966070435" lon="8.726403665161994"><ele>47.33333333333333</ele><time>2026-04-27T10:05:57.823Z</time></trkpt><trkpt lat="39.69800768855887" lon="8.726175528848398"><ele>47.0</ele><time>2026-04-27T10:05:58.823Z</time></trkpt><trkpt lat="39.69796556328235" lon="8.72593907197155"><ele>46.666666666666664</ele><time>2026-04-27T10:05:59.823Z</time></trkpt><trkpt lat="39.69792848789918" lon="8.725721961763854"><ele>46.333333333333336</ele><time>2026-04-27T10:06:00.823Z</time></trkpt><trkpt lat="39.6978882517166" lon="8.725508872156897"><ele>46.0</ele><time>2026-04-27T10:06:01.823Z</time></trkpt><trkpt lat="39.697857711944465" lon="8.725300854514154"><ele>45.5</ele><time>2026-04-27T10:06:02.823Z</time></trkpt><trkpt lat="39.69781316128184" lon="8.725098564368661"><ele>45.0</ele><time>2026-04-27T10:06:03.823Z</time></trkpt><trkpt lat="39.697779006670544" lon="8.724910327630496"><ele>44.5</ele><time>2026-04-27T10:06:04.823Z</time></trkpt><trkpt lat="39.697756131716865" lon="8.724748298993036"><ele>44.0</ele><time>2026-04-27T10:06:05.823Z</time></trkpt><trkpt lat="39.697727117384105" lon="8.724586170889161"><ele>44.0</ele><time>2026-04-27T10:06:06.823Z</time></trkpt><trkpt lat="39.69769595105555" lon="8.7244094427545"><ele>44.0</ele><time>2026-04-27T10:06:07.823Z</time></trkpt><trkpt lat="39.6976619712044" lon="8.724203134621586"><ele>44.0</ele><time>2026-04-27T10:06:08.823Z</time></trkpt><trkpt lat="39.69761665692084" lon="8.723999748558441"><ele>44.0</ele><time>2026-04-27T10:06:09.823Z</time></trkpt><trkpt lat="39.69757828554732" lon="8.723805381631418"><ele>44.0</ele><time>2026-04-27T10:06:10.823Z</time></trkpt><trkpt lat="39.69755233830433" lon="8.723651346820855"><ele>44.0</ele><time>2026-04-27T10:06:11.822Z</time></trkpt><trkpt lat="39.69752811101927" lon="8.72350837491378"><ele>44.0</ele><time>2026-04-27T10:06:12.822Z</time></trkpt><trkpt lat="39.697512314349325" lon="8.7233682530435"><ele>43.666666666666664</ele><time>2026-04-27T10:06:13.822Z</time></trkpt><trkpt lat="39.69748857294913" lon="8.723246897871787"><ele>43.33333333333333</ele><time>2026-04-27T10:06:14.822Z</time></trkpt><trkpt lat="39.69747179574773" lon="8.723140457177026"><ele>43.0</ele><time>2026-04-27T10:06:15.822Z</time></trkpt><trkpt lat="39.69745836169956" lon="8.723049519542467"><ele>42.666666666666664</ele><time>2026-04-27T10:06:16.822Z</time></trkpt><trkpt lat="39.69746365058631" lon="8.72293296288669"><ele>42.333333333333336</ele><time>2026-04-27T10:06:18.822Z</time></trkpt><trkpt lat="39.69753951827767" lon="8.722883726705515"><ele>42.0</ele><time>2026-04-27T10:06:20.822Z</time></trkpt><trkpt lat="39.697604630523436" lon="8.72281161861475"><ele>42.0</ele><time>2026-04-27T10:06:22.822Z</time></trkpt><trkpt lat="39.697666336862724" lon="8.722671939735003"><ele>42.0</ele><time>2026-04-27T10:06:24.822Z</time></trkpt><trkpt lat="39.69772443280419" lon="8.722569768887935"><ele>42.0</ele><time>2026-04-27T10:06:25.822Z</time></trkpt><trkpt lat="39.69778223667598" lon="8.722465312547293"><ele>42.0</ele><time>2026-04-27T10:06:26.822Z</time></trkpt><trkpt lat="39.69787138160356" lon="8.722361348153969"><ele>42.0</ele><time>2026-04-27T10:06:27.822Z</time></trkpt><trkpt lat="39.697951766131716" lon="8.72225782990841"><ele>42.0</ele><time>2026-04-27T10:06:28.822Z</time></trkpt><trkpt lat="39.698039137510825" lon="8.722161050390675"><ele>42.0</ele><time>2026-04-27T10:06:29.822Z</time></trkpt><trkpt lat="39.69811695066338" lon="8.722098532585866"><ele>42.0</ele><time>2026-04-27T10:06:30.822Z</time></trkpt><trkpt lat="39.69820190007125" lon="8.722057214033118"><ele>42.0</ele><time>2026-04-27T10:06:31.822Z</time></trkpt><trkpt lat="39.69829486053353" lon="8.722040490806219"><ele>42.0</ele><time>2026-04-27T10:06:32.822Z</time></trkpt><trkpt lat="39.698396084140114" lon="8.722042628983129"><ele>42.0</ele><time>2026-04-27T10:06:33.822Z</time></trkpt><trkpt lat="39.69849855937458" lon="8.722065052912109"><ele>42.0</ele><time>2026-04-27T10:06:34.822Z</time></trkpt><trkpt lat="39.698581645852876" lon="8.722112758657921"><ele>42.0</ele><time>2026-04-27T10:06:35.822Z</time></trkpt><trkpt lat="39.698674117621145" lon="8.722164307414042"><ele>42.0</ele><time>2026-04-27T10:06:36.822Z</time></trkpt><trkpt lat="39.69876163353475" lon="8.722254716799638"><ele>42.0</ele><time>2026-04-27T10:06:37.822Z</time></trkpt><trkpt lat="39.69884299350031" lon="8.722361451235267"><ele>42.0</ele><time>2026-04-27T10:06:38.822Z</time></trkpt><trkpt lat="39.69896670475716" lon="8.722485221580929"><ele>42.0</ele><time>2026-04-27T10:06:39.822Z</time></trkpt><trkpt lat="39.699093738083356" lon="8.722641589481011"><ele>42.0</ele><time>2026-04-27T10:06:40.822Z</time></trkpt><trkpt lat="39.69921974324051" lon="8.72278531404197"><ele>42.666666666666664</ele><time>2026-04-27T10:06:41.822Z</time></trkpt><trkpt lat="39.69934171519516" lon="8.722922812459341"><ele>43.33333333333333</ele><time>2026-04-27T10:06:42.822Z</time></trkpt><trkpt lat="39.69945355439792" lon="8.723068649243311"><ele>44.0</ele><time>2026-04-27T10:06:43.822Z</time></trkpt><trkpt lat="39.699575509532366" lon="8.723214676446595"><ele>44.25</ele><time>2026-04-27T10:06:44.822Z</time></trkpt><trkpt lat="39.699688846314096" lon="8.7233477195958"><ele>44.5</ele><time>2026-04-27T10:06:45.822Z</time></trkpt><trkpt lat="39.69979913002343" lon="8.72347422448095"><ele>44.75</ele><time>2026-04-27T10:06:46.822Z</time></trkpt><trkpt lat="39.69988323531693" lon="8.723572896739187"><ele>45.0</ele><time>2026-04-27T10:06:47.822Z</time></trkpt><trkpt lat="39.699972182773806" lon="8.723681191574505"><ele>45.5</ele><time>2026-04-27T10:06:48.822Z</time></trkpt><trkpt lat="39.70007393686304" lon="8.723799091111161"><ele>46.0</ele><time>2026-04-27T10:06:49.822Z</time></trkpt><trkpt lat="39.700191316551624" lon="8.723926184354921"><ele>46.5</ele><time>2026-04-27T10:06:50.822Z</time></trkpt><trkpt lat="39.700274515714376" lon="8.724041722751874"><ele>47.0</ele><time>2026-04-27T10:06:51.822Z</time></trkpt><trkpt lat="39.700391225404324" lon="8.724176899162304"><ele>47.5</ele><time>2026-04-27T10:06:52.822Z</time></trkpt><trkpt lat="39.700512398540155" lon="8.724317245177593"><ele>48.0</ele><time>2026-04-27T10:06:53.822Z</time></trkpt><trkpt lat="39.70062112997871" lon="8.724443180898362"><ele>48.5</ele><time>2026-04-27T10:06:54.822Z</time></trkpt><trkpt lat="39.700698887432516" lon="8.724534307584468"><ele>49.0</ele><time>2026-04-27T10:06:55.822Z</time></trkpt><trkpt lat="39.70077622589529" lon="8.724627731660966"><ele>48.99999999999999</ele><time>2026-04-27T10:06:56.822Z</time></trkpt><trkpt lat="39.70083377689472" lon="8.724701351286798"><ele>49.0</ele><time>2026-04-27T10:06:57.822Z</time></trkpt><trkpt lat="39.70088221777063" lon="8.72476275057071"><ele>49.0</ele><time>2026-04-27T10:06:58.822Z</time></trkpt><trkpt lat="39.70093314990077" lon="8.724826506822017"><ele>49.0</ele><time>2026-04-27T10:06:59.822Z</time></trkpt><trkpt lat="39.70100343792205" lon="8.724886394082684"><ele>48.99999999999999</ele><time>2026-04-27T10:07:00.822Z</time></trkpt><trkpt lat="39.70107585160878" lon="8.724982262558164"><ele>49.0</ele><time>2026-04-27T10:07:01.822Z</time></trkpt><trkpt lat="39.701176076412516" lon="8.725104052992423"><ele>49.25</ele><time>2026-04-27T10:07:02.822Z</time></trkpt><trkpt lat="39.70125838522544" lon="8.725196173121423"><ele>49.5</ele><time>2026-04-27T10:07:03.822Z</time></trkpt><trkpt lat="39.70133007767052" lon="8.725282155171756"><ele>49.75</ele><time>2026-04-27T10:07:04.822Z</time></trkpt><trkpt lat="39.701401446266985" lon="8.72535647738425"><ele>50.0</ele><time>2026-04-27T10:07:05.822Z</time></trkpt><trkpt lat="39.70169247648905" lon="8.7256844980255"><ele>51.0</ele><time>2026-04-27T10:07:07.822Z</time></trkpt><trkpt lat="39.70180485488997" lon="8.725815685599528"><ele>52.0</ele><time>2026-04-27T10:07:08.822Z</time></trkpt><trkpt lat="39.701918263311306" lon="8.725949425283439"><ele>53.0</ele><time>2026-04-27T10:07:09.822Z</time></trkpt><trkpt lat="39.702034484294465" lon="8.726085781646889"><ele>53.66666666666667</ele><time>2026-04-27T10:07:10.822Z</time></trkpt><trkpt lat="39.702156024151016" lon="8.726226629930965"><ele>54.33333333333333</ele><time>2026-04-27T10:07:11.822Z</time></trkpt><trkpt lat="39.70227966129935" lon="8.726368090598761"><ele>55.0</ele><time>2026-04-27T10:07:12.822Z</time></trkpt><trkpt lat="39.70240256895676" lon="8.726511642827328"><ele>55.0</ele><time>2026-04-27T10:07:13.822Z</time></trkpt><trkpt lat="39.702522789227366" lon="8.726649875416966"><ele>55.0</ele><time>2026-04-27T10:07:14.822Z</time></trkpt><trkpt lat="39.70264262714468" lon="8.726787875168828"><ele>55.0</ele><time>2026-04-27T10:07:15.822Z</time></trkpt><trkpt lat="39.70276370815291" lon="8.72692750647837"><ele>55.666666666666664</ele><time>2026-04-27T10:07:16.822Z</time></trkpt><trkpt lat="39.70288352468302" lon="8.727065956388453"><ele>56.33333333333333</ele><time>2026-04-27T10:07:17.822Z</time></trkpt><trkpt lat="39.70300906565173" lon="8.72721064835285"><ele>57.0</ele><time>2026-04-27T10:07:18.822Z</time></trkpt><trkpt lat="39.70313337417" lon="8.727354097851126"><ele>57.0</ele><time>2026-04-27T10:07:19.822Z</time></trkpt><trkpt lat="39.70325598497999" lon="8.727493955027475"><ele>57.0</ele><time>2026-04-27T10:07:20.822Z</time></trkpt><trkpt lat="39.70336879957552" lon="8.727627096659374"><ele>57.0</ele><time>2026-04-27T10:07:21.822Z</time></trkpt><trkpt lat="39.70346806905497" lon="8.727746728457046"><ele>57.400000000000006</ele><time>2026-04-27T10:07:22.822Z</time></trkpt><trkpt lat="39.7035559459798" lon="8.727855565850703"><ele>57.800000000000004</ele><time>2026-04-27T10:07:23.822Z</time></trkpt><trkpt lat="39.7036302802448" lon="8.727950976351057"><ele>58.2</ele><time>2026-04-27T10:07:24.822Z</time></trkpt><trkpt lat="39.70369557558681" lon="8.728027499588714"><ele>58.6</ele><time>2026-04-27T10:07:25.822Z</time></trkpt><trkpt lat="39.70374684871922" lon="8.728096053581003"><ele>59.0</ele><time>2026-04-27T10:07:26.822Z</time></trkpt><trkpt lat="39.70383901366866" lon="8.728160628234777"><ele>59.16666666666667</ele><time>2026-04-27T10:07:28.82Z</time></trkpt><trkpt lat="39.703901227352986" lon="8.728107814551782"><ele>59.333333333333336</ele><time>2026-04-27T10:07:30.82Z</time></trkpt><trkpt lat="39.703904178831394" lon="8.728003848179169"><ele>59.5</ele><time>2026-04-27T10:07:31.819Z</time></trkpt><trkpt lat="39.703934463179074" lon="8.727918593072168"><ele>59.66666666666667</ele><time>2026-04-27T10:07:32.819Z</time></trkpt><trkpt lat="39.703959774440484" lon="8.727808987004241"><ele>59.833333333333336</ele><time>2026-04-27T10:07:33.819Z</time></trkpt><trkpt lat="39.70397435159213" lon="8.727690587050477"><ele>60.0</ele><time>2026-04-27T10:07:34.819Z</time></trkpt><trkpt lat="39.70399278073601" lon="8.72753888672316"><ele>60.0</ele><time>2026-04-27T10:07:35.819Z</time></trkpt><trkpt lat="39.70401492095365" lon="8.727375873773992"><ele>60.0</ele><time>2026-04-27T10:07:36.819Z</time></trkpt><trkpt lat="39.70402593604658" lon="8.727204091151245"><ele>60.0</ele><time>2026-04-27T10:07:37.819Z</time></trkpt><trkpt lat="39.704027449153024" lon="8.727031054944812"><ele>60.0</ele><time>2026-04-27T10:07:38.819Z</time></trkpt><trkpt lat="39.70403524689596" lon="8.726854403663252"><ele>60.0</ele><time>2026-04-27T10:07:39.82Z</time></trkpt><trkpt lat="39.70406004918305" lon="8.72667828259941"><ele>60.0</ele><time>2026-04-27T10:07:40.82Z</time></trkpt><trkpt lat="39.70410036953685" lon="8.72652081579751"><ele>60.0</ele><time>2026-04-27T10:07:41.82Z</time></trkpt><trkpt lat="39.7041501020841" lon="8.72638295229119"><ele>60.0</ele><time>2026-04-27T10:07:42.82Z</time></trkpt><trkpt lat="39.70421852828494" lon="8.726257518448705"><ele>60.0</ele><time>2026-04-27T10:07:43.819Z</time></trkpt><trkpt lat="39.70430180470144" lon="8.726144892508604"><ele>60.0</ele><time>2026-04-27T10:07:44.819Z</time></trkpt><trkpt lat="39.704389331786594" lon="8.726014683234554"><ele>60.0</ele><time>2026-04-27T10:07:45.819Z</time></trkpt><trkpt lat="39.70446992785064" lon="8.725892149000098"><ele>60.0</ele><time>2026-04-27T10:07:46.819Z</time></trkpt><trkpt lat="39.704535184597084" lon="8.725788625605606"><ele>59.833333333333336</ele><time>2026-04-27T10:07:47.819Z</time></trkpt><trkpt lat="39.70458136829531" lon="8.725706101362409"><ele>59.66666666666667</ele><time>2026-04-27T10:07:48.819Z</time></trkpt><trkpt lat="39.70460515258526" lon="8.725620570664214"><ele>59.5</ele><time>2026-04-27T10:07:49.819Z</time></trkpt><trkpt lat="39.704615375212015" lon="8.725512129496694"><ele>59.333333333333336</ele><time>2026-04-27T10:07:50.819Z</time></trkpt><trkpt lat="39.70461098911694" lon="8.725379534822668"><ele>59.16666666666667</ele><time>2026-04-27T10:07:51.819Z</time></trkpt><trkpt lat="39.70460376539835" lon="8.725232521976519"><ele>59.0</ele><time>2026-04-27T10:07:52.819Z</time></trkpt><trkpt lat="39.704605608981076" lon="8.725080419041104"><ele>59.0</ele><time>2026-04-27T10:07:53.819Z</time></trkpt><trkpt lat="39.70462594002562" lon="8.724912232581854"><ele>59.0</ele><time>2026-04-27T10:07:54.819Z</time></trkpt><trkpt lat="39.70463170925627" lon="8.724741740660257"><ele>59.0</ele><time>2026-04-27T10:07:55.819Z</time></trkpt><trkpt lat="39.7046477271507" lon="8.724569829290427"><ele>59.0</ele><time>2026-04-27T10:07:56.819Z</time></trkpt><trkpt lat="39.70466109213209" lon="8.724410538448511"><ele>58.5</ele><time>2026-04-27T10:07:57.819Z</time></trkpt><trkpt lat="39.70470177854828" lon="8.72425327279923"><ele>58.0</ele><time>2026-04-27T10:07:58.819Z</time></trkpt><trkpt lat="39.70474841396526" lon="8.724093323554577"><ele>57.5</ele><time>2026-04-27T10:07:59.819Z</time></trkpt><trkpt lat="39.7048169747926" lon="8.723939883757785"><ele>57.0</ele><time>2026-04-27T10:08:00.819Z</time></trkpt><trkpt lat="39.70489559367133" lon="8.723791504989503"><ele>57.0</ele><time>2026-04-27T10:08:01.819Z</time></trkpt><trkpt lat="39.704992177679884" lon="8.723669576321065"><ele>57.0</ele><time>2026-04-27T10:08:02.819Z</time></trkpt><trkpt lat="39.705094113994484" lon="8.72352932380298"><ele>57.0</ele><time>2026-04-27T10:08:03.819Z</time></trkpt><trkpt lat="39.705175041009014" lon="8.723408106166783"><ele>57.0</ele><time>2026-04-27T10:08:04.819Z</time></trkpt><trkpt lat="39.70523539269394" lon="8.72329615953137"><ele>57.0</ele><time>2026-04-27T10:08:05.819Z</time></trkpt><trkpt lat="39.70527261535522" lon="8.723187615173106"><ele>57.0</ele><time>2026-04-27T10:08:06.819Z</time></trkpt><trkpt lat="39.70527382121594" lon="8.723062013411782"><ele>57.0</ele><time>2026-04-27T10:08:07.819Z</time></trkpt><trkpt lat="39.70530300028031" lon="8.722927142334647"><ele>57.0</ele><time>2026-04-27T10:08:08.819Z</time></trkpt><trkpt lat="39.70532483718623" lon="8.72276239167286"><ele>57.0</ele><time>2026-04-27T10:08:09.819Z</time></trkpt><trkpt lat="39.705349209409164" lon="8.72257851416067"><ele>56.33333333333333</ele><time>2026-04-27T10:08:10.819Z</time></trkpt><trkpt lat="39.705362872529925" lon="8.722385615660091"><ele>55.666666666666664</ele><time>2026-04-27T10:08:11.819Z</time></trkpt><trkpt lat="39.70538502531746" lon="8.7221884290084"><ele>55.0</ele><time>2026-04-27T10:08:12.819Z</time></trkpt><trkpt lat="39.70543412734908" lon="8.721995114597773"><ele>54.75</ele><time>2026-04-27T10:08:13.819Z</time></trkpt><trkpt lat="39.705473305804134" lon="8.721803327112553"><ele>54.5</ele><time>2026-04-27T10:08:14.819Z</time></trkpt><trkpt lat="39.705507540728235" lon="8.721613102460317"><ele>54.25</ele><time>2026-04-27T10:08:15.819Z</time></trkpt><trkpt lat="39.70557549496384" lon="8.721455234338023"><ele>54.0</ele><time>2026-04-27T10:08:16.819Z</time></trkpt><trkpt lat="39.70563617725021" lon="8.721303006853558"><ele>54.0</ele><time>2026-04-27T10:08:17.819Z</time></trkpt><trkpt lat="39.705699334898235" lon="8.721175985149367"><ele>54.00000000000001</ele><time>2026-04-27T10:08:18.819Z</time></trkpt><trkpt lat="39.70576591502667" lon="8.721079563844782"><ele>54.00000000000001</ele><time>2026-04-27T10:08:19.819Z</time></trkpt><trkpt lat="39.705844548834726" lon="8.720996628236012"><ele>54.0</ele><time>2026-04-27T10:08:20.819Z</time></trkpt><trkpt lat="39.70595114141143" lon="8.72095073163423"><ele>54.0</ele><time>2026-04-27T10:08:21.819Z</time></trkpt><trkpt lat="39.7060702284611" lon="8.720880371191555"><ele>53.5</ele><time>2026-04-27T10:08:22.819Z</time></trkpt><trkpt lat="39.7061895624494" lon="8.720813472355731"><ele>53.0</ele><time>2026-04-27T10:08:23.819Z</time></trkpt><trkpt lat="39.70631520484451" lon="8.720744931246214"><ele>52.5</ele><time>2026-04-27T10:08:24.819Z</time></trkpt><trkpt lat="39.70644147290785" lon="8.720652379800663"><ele>52.0</ele><time>2026-04-27T10:08:25.819Z</time></trkpt><trkpt lat="39.7065584090977" lon="8.72058068046348"><ele>52.0</ele><time>2026-04-27T10:08:26.819Z</time></trkpt><trkpt lat="39.706664398395965" lon="8.720470794958409"><ele>52.0</ele><time>2026-04-27T10:08:27.819Z</time></trkpt><trkpt lat="39.70676322569238" lon="8.720352942335296"><ele>52.0</ele><time>2026-04-27T10:08:28.819Z</time></trkpt><trkpt lat="39.706845543588805" lon="8.720221847244776"><ele>52.0</ele><time>2026-04-27T10:08:29.819Z</time></trkpt><trkpt lat="39.70692985397913" lon="8.720071019749843"><ele>51.0</ele><time>2026-04-27T10:08:30.819Z</time></trkpt><trkpt lat="39.70701547992754" lon="8.719902854735025"><ele>50.0</ele><time>2026-04-27T10:08:31.819Z</time></trkpt><trkpt lat="39.707126884174" lon="8.719746362305386"><ele>49.0</ele><time>2026-04-27T10:08:32.819Z</time></trkpt><trkpt lat="39.707216703201695" lon="8.719596153911418"><ele>49.0</ele><time>2026-04-27T10:08:33.819Z</time></trkpt><trkpt lat="39.707314350880544" lon="8.719438230159845"><ele>49.0</ele><time>2026-04-27T10:08:34.819Z</time></trkpt><trkpt lat="39.707413813158546" lon="8.719278120592172"><ele>49.0</ele><time>2026-04-27T10:08:35.819Z</time></trkpt><trkpt lat="39.70751761866748" lon="8.7191082501666"><ele>49.33333333333333</ele><time>2026-04-27T10:08:36.819Z</time></trkpt><trkpt lat="39.70762268667642" lon="8.718935454863852"><ele>49.66666666666667</ele><time>2026-04-27T10:08:37.819Z</time></trkpt><trkpt lat="39.70773282631463" lon="8.718759198726143"><ele>50.0</ele><time>2026-04-27T10:08:38.819Z</time></trkpt><trkpt lat="39.70782583655693" lon="8.718578176790245"><ele>49.333333333333336</ele><time>2026-04-27T10:08:39.819Z</time></trkpt><trkpt lat="39.707925807139354" lon="8.718408365529438"><ele>48.66666666666667</ele><time>2026-04-27T10:08:40.819Z</time></trkpt><trkpt lat="39.708029666546416" lon="8.71824881174321"><ele>48.0</ele><time>2026-04-27T10:08:41.819Z</time></trkpt><trkpt lat="39.70812027292863" lon="8.71807674922695"><ele>48.0</ele><time>2026-04-27T10:08:42.819Z</time></trkpt><trkpt lat="39.7081941581564" lon="8.717885098788638"><ele>48.0</ele><time>2026-04-27T10:08:43.819Z</time></trkpt><trkpt lat="39.70826925769946" lon="8.717689974297551"><ele>48.0</ele><time>2026-04-27T10:08:44.819Z</time></trkpt><trkpt lat="39.70834761039677" lon="8.717496614597636"><ele>48.5</ele><time>2026-04-27T10:08:45.819Z</time></trkpt><trkpt lat="39.70842051395154" lon="8.717307938759944"><ele>49.0</ele><time>2026-04-27T10:08:46.819Z</time></trkpt><trkpt lat="39.70849256940334" lon="8.717136385511546"><ele>49.5</ele><time>2026-04-27T10:08:47.819Z</time></trkpt><trkpt lat="39.708567378432726" lon="8.716991307610215"><ele>50.0</ele><time>2026-04-27T10:08:48.819Z</time></trkpt><trkpt lat="39.70865048535879" lon="8.716853177263692"><ele>50.66666666666667</ele><time>2026-04-27T10:08:49.819Z</time></trkpt><trkpt lat="39.70875360364735" lon="8.716701196050304"><ele>51.33333333333333</ele><time>2026-04-27T10:08:50.819Z</time></trkpt><trkpt lat="39.70885492183278" lon="8.716553870681372"><ele>52.0</ele><time>2026-04-27T10:08:51.819Z</time></trkpt><trkpt lat="39.70896230520697" lon="8.716394321734189"><ele>52.0</ele><time>2026-04-27T10:08:52.819Z</time></trkpt><trkpt lat="39.709067535780434" lon="8.716240966460939"><ele>52.0</ele><time>2026-04-27T10:08:53.819Z</time></trkpt><trkpt lat="39.709178827330646" lon="8.716084702317461"><ele>52.0</ele><time>2026-04-27T10:08:54.819Z</time></trkpt><trkpt lat="39.70929102250528" lon="8.715931339727058"><ele>53.33333333333333</ele><time>2026-04-27T10:08:55.819Z</time></trkpt><trkpt lat="39.709410341062586" lon="8.715776148157437"><ele>54.66666666666667</ele><time>2026-04-27T10:08:56.819Z</time></trkpt><trkpt lat="39.70953141692937" lon="8.715620616026152"><ele>56.0</ele><time>2026-04-27T10:08:57.819Z</time></trkpt><trkpt lat="39.70965483675227" lon="8.715468951950431"><ele>56.0</ele><time>2026-04-27T10:08:58.819Z</time></trkpt><trkpt lat="39.70978117437058" lon="8.715309651265061"><ele>56.0</ele><time>2026-04-27T10:08:59.819Z</time></trkpt><trkpt lat="39.70990418750466" lon="8.715153383599986"><ele>56.0</ele><time>2026-04-27T10:09:00.819Z</time></trkpt><trkpt lat="39.71003681426977" lon="8.714988488728128"><ele>56.333333333333336</ele><time>2026-04-27T10:09:01.819Z</time></trkpt><trkpt lat="39.71016403944048" lon="8.714825241402533"><ele>56.66666666666667</ele><time>2026-04-27T10:09:02.819Z</time></trkpt><trkpt lat="39.71029618236672" lon="8.714661294408414"><ele>57.0</ele><time>2026-04-27T10:09:03.819Z</time></trkpt><trkpt lat="39.710433552448876" lon="8.71449232883532"><ele>57.33333333333333</ele><time>2026-04-27T10:09:04.819Z</time></trkpt><trkpt lat="39.71057659396886" lon="8.714315966241463"><ele>57.666666666666664</ele><time>2026-04-27T10:09:05.819Z</time></trkpt><trkpt lat="39.710711089682405" lon="8.71414945037727"><ele>58.0</ele><time>2026-04-27T10:09:06.819Z</time></trkpt><trkpt lat="39.710848754717006" lon="8.713982175433078"><ele>58.0</ele><time>2026-04-27T10:09:07.819Z</time></trkpt><trkpt lat="39.71097517529097" lon="8.713810739510807"><ele>58.0</ele><time>2026-04-27T10:09:08.819Z</time></trkpt><trkpt lat="39.71109812605307" lon="8.71365609764847"><ele>58.0</ele><time>2026-04-27T10:09:09.819Z</time></trkpt><trkpt lat="39.711213159565396" lon="8.713506621079336"><ele>58.666666666666664</ele><time>2026-04-27T10:09:10.819Z</time></trkpt><trkpt lat="39.71133138216771" lon="8.713359857950751"><ele>59.33333333333333</ele><time>2026-04-27T10:09:11.819Z</time></trkpt><trkpt lat="39.71144204621636" lon="8.713204539790581"><ele>60.0</ele><time>2026-04-27T10:09:12.818Z</time></trkpt><trkpt lat="39.7115556243616" lon="8.713054248971059"><ele>60.0</ele><time>2026-04-27T10:09:13.818Z</time></trkpt><trkpt lat="39.71166379832425" lon="8.712908205589933"><ele>60.0</ele><time>2026-04-27T10:09:14.818Z</time></trkpt><trkpt lat="39.711761763246045" lon="8.712776448492646"><ele>60.0</ele><time>2026-04-27T10:09:15.818Z</time></trkpt><trkpt lat="39.71186261992643" lon="8.712636276462858"><ele>60.0</ele><time>2026-04-27T10:09:16.818Z</time></trkpt><trkpt lat="39.71196797442133" lon="8.712493025328076"><ele>59.66666666666667</ele><time>2026-04-27T10:09:17.818Z</time></trkpt><trkpt lat="39.71207882858001" lon="8.712344053171481"><ele>59.333333333333336</ele><time>2026-04-27T10:09:18.818Z</time></trkpt><trkpt lat="39.712181536663515" lon="8.712209002856365"><ele>59.0</ele><time>2026-04-27T10:09:19.818Z</time></trkpt><trkpt lat="39.71228248336817" lon="8.712074221349516"><ele>59.0</ele><time>2026-04-27T10:09:20.818Z</time></trkpt><trkpt lat="39.71238406328706" lon="8.71194332566208"><ele>59.0</ele><time>2026-04-27T10:09:21.818Z</time></trkpt><trkpt lat="39.71248530628253" lon="8.71181223386907"><ele>59.0</ele><time>2026-04-27T10:09:22.818Z</time></trkpt><trkpt lat="39.712580650188215" lon="8.711696853488213"><ele>59.0</ele><time>2026-04-27T10:09:23.818Z</time></trkpt><trkpt lat="39.71268454838721" lon="8.71157904603555"><ele>57.75</ele><time>2026-04-27T10:09:24.818Z</time></trkpt><trkpt lat="39.71280714841197" lon="8.711482902114252"><ele>56.5</ele><time>2026-04-27T10:09:25.818Z</time></trkpt><trkpt lat="39.712906168861345" lon="8.711366823257821"><ele>55.25</ele><time>2026-04-27T10:09:26.818Z</time></trkpt><trkpt lat="39.71302326516511" lon="8.711254845865817"><ele>54.0</ele><time>2026-04-27T10:09:27.818Z</time></trkpt><trkpt lat="39.71313858126656" lon="8.711143496690507"><ele>52.33333333333333</ele><time>2026-04-27T10:09:28.818Z</time></trkpt><trkpt lat="39.71325570718319" lon="8.711028559429563"><ele>50.666666666666664</ele><time>2026-04-27T10:09:29.818Z</time></trkpt><trkpt lat="39.713381737176675" lon="8.710904970295331"><ele>49.0</ele><time>2026-04-27T10:09:30.818Z</time></trkpt><trkpt lat="39.71349880639862" lon="8.710788702535279"><ele>49.0</ele><time>2026-04-27T10:09:31.818Z</time></trkpt><trkpt lat="39.71362558596387" lon="8.710666409010203"><ele>49.0</ele><time>2026-04-27T10:09:32.818Z</time></trkpt><trkpt lat="39.71375178234685" lon="8.710545548197594"><ele>49.0</ele><time>2026-04-27T10:09:33.816Z</time></trkpt><trkpt lat="39.7138776827088" lon="8.710417426126059"><ele>49.0</ele><time>2026-04-27T10:09:34.816Z</time></trkpt><trkpt lat="39.71401704289643" lon="8.71030904557662"><ele>49.0</ele><time>2026-04-27T10:09:35.816Z</time></trkpt><trkpt lat="39.7141474911673" lon="8.710187541812159"><ele>49.0</ele><time>2026-04-27T10:09:36.816Z</time></trkpt><trkpt lat="39.71427409349404" lon="8.71007367513188"><ele>48.0</ele><time>2026-04-27T10:09:37.816Z</time></trkpt><trkpt lat="39.7143972661532" lon="8.709964058224598"><ele>47.0</ele><time>2026-04-27T10:09:38.816Z</time></trkpt><trkpt lat="39.714521066557154" lon="8.709835945973067"><ele>46.0</ele><time>2026-04-27T10:09:39.816Z</time></trkpt><trkpt lat="39.71466258559632" lon="8.709714309106841"><ele>45.66666666666667</ele><time>2026-04-27T10:09:40.816Z</time></trkpt><trkpt lat="39.71481111224152" lon="8.709597144903661"><ele>45.333333333333336</ele><time>2026-04-27T10:09:41.816Z</time></trkpt><trkpt lat="39.71494756634127" lon="8.709483027031133"><ele>45.0</ele><time>2026-04-27T10:09:42.815Z</time></trkpt><trkpt lat="39.71508540579433" lon="8.709368183069934"><ele>44.666666666666664</ele><time>2026-04-27T10:09:43.815Z</time></trkpt><trkpt lat="39.71521931097689" lon="8.709248694907174"><ele>44.33333333333333</ele><time>2026-04-27T10:09:44.815Z</time></trkpt><trkpt lat="39.7153511130839" lon="8.709130097320271"><ele>44.0</ele><time>2026-04-27T10:09:45.816Z</time></trkpt><trkpt lat="39.71547532498997" lon="8.709016010787268"><ele>44.0</ele><time>2026-04-27T10:09:46.816Z</time></trkpt><trkpt lat="39.71560039588251" lon="8.708888043552705"><ele>44.0</ele><time>2026-04-27T10:09:47.816Z</time></trkpt><trkpt lat="39.7157242956564" lon="8.708777335470431"><ele>44.0</ele><time>2026-04-27T10:09:48.816Z</time></trkpt><trkpt lat="39.715844546236774" lon="8.708676665410119"><ele>42.75</ele><time>2026-04-27T10:09:49.816Z</time></trkpt><trkpt lat="39.71596882435241" lon="8.708573004479073"><ele>41.5</ele><time>2026-04-27T10:09:50.816Z</time></trkpt><trkpt lat="39.71609184827085" lon="8.708467311395133"><ele>40.25</ele><time>2026-04-27T10:09:51.816Z</time></trkpt><trkpt lat="39.716213082037946" lon="8.708360499152848"><ele>39.0</ele><time>2026-04-27T10:09:52.816Z</time></trkpt><trkpt lat="39.71633625719085" lon="8.708250100067438"><ele>38.666666666666664</ele><time>2026-04-27T10:09:53.816Z</time></trkpt><trkpt lat="39.71646182600677" lon="8.708134494677724"><ele>38.33333333333333</ele><time>2026-04-27T10:09:54.816Z</time></trkpt><trkpt lat="39.71659037524" lon="8.708020435700618"><ele>38.0</ele><time>2026-04-27T10:09:55.816Z</time></trkpt><trkpt lat="39.7167187017199" lon="8.70790518685304"><ele>38.0</ele><time>2026-04-27T10:09:56.816Z</time></trkpt><trkpt lat="39.716848153643745" lon="8.70778216570322"><ele>38.0</ele><time>2026-04-27T10:09:57.815Z</time></trkpt><trkpt lat="39.716977326611854" lon="8.707656309817903"><ele>38.0</ele><time>2026-04-27T10:09:58.815Z</time></trkpt><trkpt lat="39.71710934587993" lon="8.707532251972427"><ele>38.0</ele><time>2026-04-27T10:09:59.815Z</time></trkpt><trkpt lat="39.71724293359788" lon="8.707403351878975"><ele>38.0</ele><time>2026-04-27T10:10:00.815Z</time></trkpt><trkpt lat="39.71737676948419" lon="8.707269872482671"><ele>38.0</ele><time>2026-04-27T10:10:01.815Z</time></trkpt><trkpt lat="39.71750902017846" lon="8.707136245882317"><ele>38.0</ele><time>2026-04-27T10:10:02.815Z</time></trkpt><trkpt lat="39.71764165479736" lon="8.707003259011227"><ele>38.0</ele><time>2026-04-27T10:10:03.815Z</time></trkpt><trkpt lat="39.71778149593625" lon="8.706873034253256"><ele>38.0</ele><time>2026-04-27T10:10:04.815Z</time></trkpt><trkpt lat="39.71791513722186" lon="8.706734300357791"><ele>38.5</ele><time>2026-04-27T10:10:05.815Z</time></trkpt><trkpt lat="39.718042352065815" lon="8.706597132843953"><ele>39.0</ele><time>2026-04-27T10:10:06.815Z</time></trkpt><trkpt lat="39.718149028936104" lon="8.706490021123422"><ele>39.5</ele><time>2026-04-27T10:10:07.815Z</time></trkpt><trkpt lat="39.71824889886928" lon="8.706391987976899"><ele>40.0</ele><time>2026-04-27T10:10:08.815Z</time></trkpt><trkpt lat="39.71834008432522" lon="8.706297404105412"><ele>40.0</ele><time>2026-04-27T10:10:09.815Z</time></trkpt><trkpt lat="39.71842131732551" lon="8.706212933324172"><ele>40.0</ele><time>2026-04-27T10:10:10.815Z</time></trkpt><trkpt lat="39.71849137466588" lon="8.706141238289147"><ele>40.0</ele><time>2026-04-27T10:10:11.815Z</time></trkpt><trkpt lat="39.71857199350749" lon="8.706052912788225"><ele>40.0</ele><time>2026-04-27T10:10:13.815Z</time></trkpt><trkpt lat="39.7185871943892" lon="8.705930313505023"><ele>40.0</ele><time>2026-04-27T10:10:15.815Z</time></trkpt><trkpt lat="39.718553656178806" lon="8.705851256880248"><ele>40.0</ele><time>2026-04-27T10:10:16.815Z</time></trkpt><trkpt lat="39.718480410953944" lon="8.705809328162507"><ele>40.0</ele><time>2026-04-27T10:10:17.815Z</time></trkpt><trkpt lat="39.71842338145434" lon="8.705753077793267"><ele>40.0</ele><time>2026-04-27T10:10:18.815Z</time></trkpt><trkpt lat="39.718364441140785" lon="8.70568050555669"><ele>40.0</ele><time>2026-04-27T10:10:19.815Z</time></trkpt><trkpt lat="39.71827167293407" lon="8.705644084251945"><ele>40.0</ele><time>2026-04-27T10:10:20.815Z</time></trkpt><trkpt lat="39.71819429305821" lon="8.705566849042865"><ele>40.0</ele><time>2026-04-27T10:10:21.815Z</time></trkpt><trkpt lat="39.71810294169189" lon="8.7054925298041"><ele>40.0</ele><time>2026-04-27T10:10:22.815Z</time></trkpt><trkpt lat="39.71800630697542" lon="8.705413912284888"><ele>40.0</ele><time>2026-04-27T10:10:23.815Z</time></trkpt><trkpt lat="39.71790786957873" lon="8.705333828147445"><ele>40.0</ele><time>2026-04-27T10:10:24.815Z</time></trkpt><trkpt lat="39.717802990725204" lon="8.705248503592637"><ele>40.0</ele><time>2026-04-27T10:10:25.815Z</time></trkpt><trkpt lat="39.71769435843556" lon="8.705160125427362"><ele>39.25</ele><time>2026-04-27T10:10:26.815Z</time></trkpt><trkpt lat="39.71758398880428" lon="8.705070333743981"><ele>38.5</ele><time>2026-04-27T10:10:27.815Z</time></trkpt><trkpt lat="39.71746973512053" lon="8.705000645435218"><ele>37.75</ele><time>2026-04-27T10:10:28.815Z</time></trkpt><trkpt lat="39.717367133253305" lon="8.704910391327779"><ele>37.0</ele><time>2026-04-27T10:10:29.815Z</time></trkpt><trkpt lat="39.71725978930207" lon="8.70482980318298"><ele>37.0</ele><time>2026-04-27T10:10:30.815Z</time></trkpt><trkpt lat="39.71715330910974" lon="8.704733846354305"><ele>37.0</ele><time>2026-04-27T10:10:31.815Z</time></trkpt><trkpt lat="39.71704636921873" lon="8.704638984340669"><ele>37.0</ele><time>2026-04-27T10:10:32.815Z</time></trkpt><trkpt lat="39.71693503091208" lon="8.704550001916385"><ele>37.0</ele><time>2026-04-27T10:10:33.815Z</time></trkpt><trkpt lat="39.716822178715766" lon="8.70446141687551"><ele>36.75</ele><time>2026-04-27T10:10:34.815Z</time></trkpt><trkpt lat="39.71671033683333" lon="8.704365856335256"><ele>36.5</ele><time>2026-04-27T10:10:35.815Z</time></trkpt><trkpt lat="39.716604012260234" lon="8.704269181792835"><ele>36.25</ele><time>2026-04-27T10:10:36.815Z</time></trkpt><trkpt lat="39.71649706949035" lon="8.70417493286993"><ele>36.0</ele><time>2026-04-27T10:10:37.815Z</time></trkpt><trkpt lat="39.71638904284196" lon="8.704084164652434"><ele>36.0</ele><time>2026-04-27T10:10:38.815Z</time></trkpt><trkpt lat="39.71627967052009" lon="8.70399125869959"><ele>36.0</ele><time>2026-04-27T10:10:39.815Z</time></trkpt><trkpt lat="39.71617337518178" lon="8.703893676292893"><ele>36.0</ele><time>2026-04-27T10:10:40.815Z</time></trkpt><trkpt lat="39.71605823029273" lon="8.703807712871528"><ele>36.0</ele><time>2026-04-27T10:10:41.815Z</time></trkpt><trkpt lat="39.715948175849164" lon="8.703716805089075"><ele>35.5</ele><time>2026-04-27T10:10:42.815Z</time></trkpt><trkpt lat="39.71583169667551" lon="8.703621191770955"><ele>35.0</ele><time>2026-04-27T10:10:43.815Z</time></trkpt><trkpt lat="39.71571748970815" lon="8.703524369649424"><ele>34.5</ele><time>2026-04-27T10:10:44.815Z</time></trkpt><trkpt lat="39.71560245492641" lon="8.70342762020715"><ele>34.0</ele><time>2026-04-27T10:10:45.815Z</time></trkpt><trkpt lat="39.71548745692896" lon="8.703336283625177"><ele>34.0</ele><time>2026-04-27T10:10:46.815Z</time></trkpt><trkpt lat="39.71538218533085" lon="8.70324786428603"><ele>34.0</ele><time>2026-04-27T10:10:47.815Z</time></trkpt><trkpt lat="39.715280742240886" lon="8.703165826245943"><ele>34.0</ele><time>2026-04-27T10:10:48.815Z</time></trkpt><trkpt lat="39.71517979667227" lon="8.703067174810203"><ele>34.0</ele><time>2026-04-27T10:10:49.815Z</time></trkpt><trkpt lat="39.71506755861626" lon="8.702977637989173"><ele>33.75</ele><time>2026-04-27T10:10:50.815Z</time></trkpt><trkpt lat="39.714955704511496" lon="8.702881759716448"><ele>33.5</ele><time>2026-04-27T10:10:51.815Z</time></trkpt><trkpt lat="39.71484238417611" lon="8.702784345392423"><ele>33.25</ele><time>2026-04-27T10:10:52.815Z</time></trkpt><trkpt lat="39.71473677953852" lon="8.702687444198311"><ele>33.0</ele><time>2026-04-27T10:10:53.815Z</time></trkpt><trkpt lat="39.71463005272705" lon="8.702583683357197"><ele>32.75</ele><time>2026-04-27T10:10:54.815Z</time></trkpt><trkpt lat="39.714524552412115" lon="8.70247882772638"><ele>32.5</ele><time>2026-04-27T10:10:55.815Z</time></trkpt><trkpt lat="39.7144206354911" lon="8.702373545096524"><ele>32.25</ele><time>2026-04-27T10:10:56.815Z</time></trkpt><trkpt lat="39.71432704227459" lon="8.702289839412606"><ele>32.0</ele><time>2026-04-27T10:10:57.815Z</time></trkpt><trkpt lat="39.71421885123637" lon="8.702209600020357"><ele>31.75</ele><time>2026-04-27T10:10:58.815Z</time></trkpt><trkpt lat="39.714105659977704" lon="8.702137684462924"><ele>31.5</ele><time>2026-04-27T10:10:59.815Z</time></trkpt><trkpt lat="39.71399456964523" lon="8.70207105641443"><ele>31.25</ele><time>2026-04-27T10:11:00.815Z</time></trkpt><trkpt lat="39.71388111947699" lon="8.702007494405798"><ele>31.0</ele><time>2026-04-27T10:11:01.815Z</time></trkpt><trkpt lat="39.713774860556015" lon="8.701940570892779"><ele>31.0</ele><time>2026-04-27T10:11:02.815Z</time></trkpt><trkpt lat="39.71365967648477" lon="8.701886891384625"><ele>31.0</ele><time>2026-04-27T10:11:03.815Z</time></trkpt><trkpt lat="39.71355124504228" lon="8.701802735514349"><ele>31.0</ele><time>2026-04-27T10:11:04.815Z</time></trkpt><trkpt lat="39.713430027463936" lon="8.701733740317295"><ele>31.0</ele><time>2026-04-27T10:11:05.815Z</time></trkpt><trkpt lat="39.71331743272883" lon="8.701669756009984"><ele>30.75</ele><time>2026-04-27T10:11:06.815Z</time></trkpt><trkpt lat="39.7131957674936" lon="8.701619022315919"><ele>30.5</ele><time>2026-04-27T10:11:07.815Z</time></trkpt><trkpt lat="39.713086177803525" lon="8.701546251608356"><ele>30.25</ele><time>2026-04-27T10:11:08.815Z</time></trkpt><trkpt lat="39.71297463909508" lon="8.701493366308327"><ele>30.0</ele><time>2026-04-27T10:11:09.815Z</time></trkpt><trkpt lat="39.7128622837957" lon="8.70142754067472"><ele>30.0</ele><time>2026-04-27T10:11:10.815Z</time></trkpt><trkpt lat="39.71274143553886" lon="8.70136262622724"><ele>30.0</ele><time>2026-04-27T10:11:11.815Z</time></trkpt><trkpt lat="39.71262762817276" lon="8.701301540542849"><ele>30.0</ele><time>2026-04-27T10:11:12.815Z</time></trkpt><trkpt lat="39.71250975644387" lon="8.701243186531867"><ele>30.0</ele><time>2026-04-27T10:11:13.815Z</time></trkpt><trkpt lat="39.71238467477932" lon="8.70118117681309"><ele>29.75</ele><time>2026-04-27T10:11:14.815Z</time></trkpt><trkpt lat="39.712262534234284" lon="8.701119532907347"><ele>29.5</ele><time>2026-04-27T10:11:15.815Z</time></trkpt><trkpt lat="39.712131160041565" lon="8.70105309074822"><ele>29.25</ele><time>2026-04-27T10:11:16.815Z</time></trkpt><trkpt lat="39.712002599120005" lon="8.700973411838385"><ele>29.0</ele><time>2026-04-27T10:11:17.815Z</time></trkpt><trkpt lat="39.711870528711565" lon="8.70089014847052"><ele>29.0</ele><time>2026-04-27T10:11:18.815Z</time></trkpt><trkpt lat="39.7117349611873" lon="8.700810782446727"><ele>29.0</ele><time>2026-04-27T10:11:19.815Z</time></trkpt><trkpt lat="39.711602088483275" lon="8.700737684589596"><ele>29.0</ele><time>2026-04-27T10:11:20.815Z</time></trkpt><trkpt lat="39.71146704685904" lon="8.700668238033694"><ele>29.0</ele><time>2026-04-27T10:11:21.815Z</time></trkpt><trkpt lat="39.711330995649824" lon="8.70059244209178"><ele>29.0</ele><time>2026-04-27T10:11:22.815Z</time></trkpt><trkpt lat="39.71120529863357" lon="8.700520944292675"><ele>29.0</ele><time>2026-04-27T10:11:23.815Z</time></trkpt><trkpt lat="39.71108060851314" lon="8.700459367583802"><ele>29.0</ele><time>2026-04-27T10:11:24.815Z</time></trkpt><trkpt lat="39.71097504700061" lon="8.700396434984556"><ele>29.0</ele><time>2026-04-27T10:11:25.815Z</time></trkpt><trkpt lat="39.71085488614801" lon="8.700345264584154"><ele>28.5</ele><time>2026-04-27T10:11:26.814Z</time></trkpt><trkpt lat="39.710732626799164" lon="8.700291750961537"><ele>28.0</ele><time>2026-04-27T10:11:27.814Z</time></trkpt><trkpt lat="39.710608966357" lon="8.700237578498811"><ele>27.5</ele><time>2026-04-27T10:11:28.814Z</time></trkpt><trkpt lat="39.710475226754184" lon="8.700166730883549"><ele>27.0</ele><time>2026-04-27T10:11:29.814Z</time></trkpt><trkpt lat="39.71034238478823" lon="8.700111772719083"><ele>26.5</ele><time>2026-04-27T10:11:30.814Z</time></trkpt><trkpt lat="39.71020692811005" lon="8.700059494743998"><ele>26.0</ele><time>2026-04-27T10:11:31.814Z</time></trkpt><trkpt lat="39.71006771888559" lon="8.699990739471948"><ele>25.5</ele><time>2026-04-27T10:11:32.814Z</time></trkpt><trkpt lat="39.70994879821029" lon="8.699933500975556"><ele>25.0</ele><time>2026-04-27T10:11:33.814Z</time></trkpt><trkpt lat="39.70982545559009" lon="8.699878069947715"><ele>25.0</ele><time>2026-04-27T10:11:34.814Z</time></trkpt><trkpt lat="39.70969278544524" lon="8.699826260811156"><ele>25.0</ele><time>2026-04-27T10:11:35.814Z</time></trkpt><trkpt lat="39.70958835144127" lon="8.699773579322274"><ele>25.0</ele><time>2026-04-27T10:11:36.814Z</time></trkpt><trkpt lat="39.709490572685944" lon="8.699739820189912"><ele>25.0</ele><time>2026-04-27T10:11:37.814Z</time></trkpt><trkpt lat="39.70938848537301" lon="8.699714782029485"><ele>25.0</ele><time>2026-04-27T10:11:38.814Z</time></trkpt><trkpt lat="39.70929039843015" lon="8.699696494648006"><ele>25.0</ele><time>2026-04-27T10:11:39.812Z</time></trkpt><trkpt lat="39.70917478813064" lon="8.69966399634921"><ele>25.0</ele><time>2026-04-27T10:11:40.812Z</time></trkpt><trkpt lat="39.7090411834112" lon="8.699665404191055"><ele>25.0</ele><time>2026-04-27T10:11:41.812Z</time></trkpt><trkpt lat="39.70889839301646" lon="8.699645282183342"><ele>25.0</ele><time>2026-04-27T10:11:42.813Z</time></trkpt><trkpt lat="39.70875186733703" lon="8.699631363370528"><ele>25.0</ele><time>2026-04-27T10:11:43.812Z</time></trkpt><trkpt lat="39.70861209346543" lon="8.699619058456209"><ele>25.0</ele><time>2026-04-27T10:11:44.812Z</time></trkpt><trkpt lat="39.708475155979464" lon="8.699611961097652"><ele>25.0</ele><time>2026-04-27T10:11:45.812Z</time></trkpt><trkpt lat="39.70834267848603" lon="8.69959985317545"><ele>24.75</ele><time>2026-04-27T10:11:46.812Z</time></trkpt><trkpt lat="39.708217199349484" lon="8.699566315111232"><ele>24.5</ele><time>2026-04-27T10:11:47.812Z</time></trkpt><trkpt lat="39.708109878446265" lon="8.699480875206273"><ele>24.25</ele><time>2026-04-27T10:11:48.812Z</time></trkpt><trkpt lat="39.70799786440417" lon="8.699388833145205"><ele>24.0</ele><time>2026-04-27T10:11:49.812Z</time></trkpt><trkpt lat="39.70787645928636" lon="8.699303242958694"><ele>24.0</ele><time>2026-04-27T10:11:50.812Z</time></trkpt><trkpt lat="39.70775917789077" lon="8.69919284071702"><ele>24.0</ele><time>2026-04-27T10:11:51.812Z</time></trkpt><trkpt lat="39.70764044451163" lon="8.699087976121687"><ele>24.0</ele><time>2026-04-27T10:11:52.812Z</time></trkpt><trkpt lat="39.70751956579816" lon="8.698988837945544"><ele>24.0</ele><time>2026-04-27T10:11:53.812Z</time></trkpt><trkpt lat="39.707405361120294" lon="8.698894641664552"><ele>23.75</ele><time>2026-04-27T10:11:54.812Z</time></trkpt><trkpt lat="39.707290856752024" lon="8.698806433924712"><ele>23.5</ele><time>2026-04-27T10:11:55.812Z</time></trkpt><trkpt lat="39.707183987019256" lon="8.698710966589614"><ele>23.25</ele><time>2026-04-27T10:11:56.812Z</time></trkpt><trkpt lat="39.70705727108507" lon="8.69864927402914"><ele>23.0</ele><time>2026-04-27T10:11:57.812Z</time></trkpt><trkpt lat="39.70692509503254" lon="8.698629927583683"><ele>22.75</ele><time>2026-04-27T10:11:58.812Z</time></trkpt><trkpt lat="39.70680110720179" lon="8.698606474040764"><ele>22.5</ele><time>2026-04-27T10:11:59.812Z</time></trkpt><trkpt lat="39.706675687380645" lon="8.698596913085503"><ele>22.25</ele><time>2026-04-27T10:12:00.812Z</time></trkpt><trkpt lat="39.706565307084546" lon="8.698609553757192"><ele>22.0</ele><time>2026-04-27T10:12:01.812Z</time></trkpt><trkpt lat="39.70645389022574" lon="8.698600637341364"><ele>22.0</ele><time>2026-04-27T10:12:02.812Z</time></trkpt><trkpt lat="39.706341649274144" lon="8.698573425299898"><ele>22.0</ele><time>2026-04-27T10:12:03.812Z</time></trkpt><trkpt lat="39.70623211527885" lon="8.69852058920737"><ele>22.0</ele><time>2026-04-27T10:12:04.812Z</time></trkpt><trkpt lat="39.70614167221761" lon="8.698421649994287"><ele>22.0</ele><time>2026-04-27T10:12:05.812Z</time></trkpt><trkpt lat="39.70606410508013" lon="8.698315336108479"><ele>22.0</ele><time>2026-04-27T10:12:06.812Z</time></trkpt><trkpt lat="39.70598858107135" lon="8.69820093305481"><ele>22.0</ele><time>2026-04-27T10:12:07.812Z</time></trkpt><trkpt lat="39.70589535121717" lon="8.698090845671176"><ele>22.0</ele><time>2026-04-27T10:12:08.812Z</time></trkpt><trkpt lat="39.70578461062257" lon="8.698010738607408"><ele>22.0</ele><time>2026-04-27T10:12:09.812Z</time></trkpt><trkpt lat="39.70569062146224" lon="8.6979156233597"><ele>22.0</ele><time>2026-04-27T10:12:10.812Z</time></trkpt><trkpt lat="39.70560980778575" lon="8.697825682572612"><ele>22.0</ele><time>2026-04-27T10:12:11.812Z</time></trkpt><trkpt lat="39.7055325794587" lon="8.69773470767279"><ele>22.0</ele><time>2026-04-27T10:12:12.812Z</time></trkpt><trkpt lat="39.70547225904284" lon="8.6976380825621"><ele>22.0</ele><time>2026-04-27T10:12:13.812Z</time></trkpt><trkpt lat="39.70540954792942" lon="8.697535915864115"><ele>22.0</ele><time>2026-04-27T10:12:14.812Z</time></trkpt><trkpt lat="39.705367682863795" lon="8.697424664907551"><ele>21.8</ele><time>2026-04-27T10:12:15.812Z</time></trkpt><trkpt lat="39.70532826936287" lon="8.697323821038422"><ele>21.6</ele><time>2026-04-27T10:12:16.812Z</time></trkpt><trkpt lat="39.70527718107879" lon="8.697227221231042"><ele>21.400000000000002</ele><time>2026-04-27T10:12:17.812Z</time></trkpt><trkpt lat="39.705225319192714" lon="8.697125902631468"><ele>21.200000000000003</ele><time>2026-04-27T10:12:19.812Z</time></trkpt><trkpt lat="39.70519196209404" lon="8.697049435008205"><ele>21.0</ele><time>2026-04-27T10:12:23.812Z</time></trkpt><trkpt lat="39.70505855402507" lon="8.697111285097769"><ele>21.0</ele><time>2026-04-27T10:12:24.812Z</time></trkpt><trkpt lat="39.70491646704733" lon="8.697063407576685"><ele>21.0</ele><time>2026-04-27T10:12:26.812Z</time></trkpt><trkpt lat="39.70486307866934" lon="8.697012307750203"><ele>21.0</ele><time>2026-04-27T10:12:27.812Z</time></trkpt><trkpt lat="39.70479313316312" lon="8.696987467503236"><ele>21.0</ele><time>2026-04-27T10:12:28.812Z</time></trkpt><trkpt lat="39.70471879392973" lon="8.69687286564412"><ele>21.0</ele><time>2026-04-27T10:12:30.812Z</time></trkpt><trkpt lat="39.7047348476299" lon="8.696721339626158"><ele>20.833333333333332</ele><time>2026-04-27T10:12:32.812Z</time></trkpt><trkpt lat="39.704775579169" lon="8.69663056583181"><ele>20.666666666666668</ele><time>2026-04-27T10:12:33.812Z</time></trkpt><trkpt lat="39.7048090547821" lon="8.696516346475125"><ele>20.5</ele><time>2026-04-27T10:12:34.812Z</time></trkpt><trkpt lat="39.7048498893931" lon="8.696434903689408"><ele>20.333333333333336</ele><time>2026-04-27T10:12:35.812Z</time></trkpt><trkpt lat="39.704881354912615" lon="8.696348091694956"><ele>20.166666666666668</ele><time>2026-04-27T10:12:36.812Z</time></trkpt><trkpt lat="39.704906612961665" lon="8.696268606889758"><ele>20.0</ele><time>2026-04-27T10:12:37.812Z</time></trkpt><trkpt lat="39.70491741752311" lon="8.696185846251751"><ele>19.8</ele><time>2026-04-27T10:12:38.812Z</time></trkpt><trkpt lat="39.70489683502567" lon="8.696086206280194"><ele>19.6</ele><time>2026-04-27T10:12:39.812Z</time></trkpt><trkpt lat="39.70481006736716" lon="8.696006638581324"><ele>19.4</ele><time>2026-04-27T10:12:40.812Z</time></trkpt><trkpt lat="39.70471925554256" lon="8.69597097484943"><ele>19.2</ele><time>2026-04-27T10:12:41.812Z</time></trkpt><trkpt lat="39.70462868571154" lon="8.695973070598477"><ele>19.0</ele><time>2026-04-27T10:12:42.812Z</time></trkpt><trkpt lat="39.704537278380506" lon="8.695966619556332"><ele>19.0</ele><time>2026-04-27T10:12:43.812Z</time></trkpt><trkpt lat="39.704446141700664" lon="8.69593652823101"><ele>19.0</ele><time>2026-04-27T10:12:44.812Z</time></trkpt><trkpt lat="39.70436367978774" lon="8.695872757931186"><ele>19.0</ele><time>2026-04-27T10:12:45.812Z</time></trkpt><trkpt lat="39.704285427522294" lon="8.695791650419936"><ele>19.0</ele><time>2026-04-27T10:12:46.812Z</time></trkpt><trkpt lat="39.70420925104941" lon="8.695703638891615"><ele>19.0</ele><time>2026-04-27T10:12:47.812Z</time></trkpt><trkpt lat="39.70411843204681" lon="8.695608044685581"><ele>18.75</ele><time>2026-04-27T10:12:48.811Z</time></trkpt><trkpt lat="39.704056455172065" lon="8.695465236842054"><ele>18.5</ele><time>2026-04-27T10:12:49.811Z</time></trkpt><trkpt lat="39.70398119979679" lon="8.695324373060675"><ele>18.25</ele><time>2026-04-27T10:12:50.811Z</time></trkpt><trkpt lat="39.7039088458459" lon="8.695180915859208"><ele>18.0</ele><time>2026-04-27T10:12:51.811Z</time></trkpt><trkpt lat="39.70383683088193" lon="8.695039091450267"><ele>17.5</ele><time>2026-04-27T10:12:52.811Z</time></trkpt><trkpt lat="39.70376895787399" lon="8.694901824860308"><ele>17.0</ele><time>2026-04-27T10:12:53.811Z</time></trkpt><trkpt lat="39.703712128661174" lon="8.694764569415938"><ele>16.5</ele><time>2026-04-27T10:12:54.811Z</time></trkpt><trkpt lat="39.70367378900796" lon="8.69462858012311"><ele>16.0</ele><time>2026-04-27T10:12:55.811Z</time></trkpt><trkpt lat="39.703649865685186" lon="8.694500031319647"><ele>16.0</ele><time>2026-04-27T10:12:56.811Z</time></trkpt><trkpt lat="39.70364308441167" lon="8.694372773448505"><ele>16.0</ele><time>2026-04-27T10:12:57.811Z</time></trkpt><trkpt lat="39.70363736550619" lon="8.694230088612839"><ele>16.0</ele><time>2026-04-27T10:12:58.811Z</time></trkpt><trkpt lat="39.7036326160448" lon="8.694095971379276"><ele>16.0</ele><time>2026-04-27T10:12:59.811Z</time></trkpt><trkpt lat="39.70361642082001" lon="8.69395263640432"><ele>16.0</ele><time>2026-04-27T10:13:00.811Z</time></trkpt><trkpt lat="39.703598581504" lon="8.693803501204002"><ele>16.0</ele><time>2026-04-27T10:13:01.811Z</time></trkpt><trkpt lat="39.70358438065629" lon="8.693638618111775"><ele>16.0</ele><time>2026-04-27T10:13:02.811Z</time></trkpt><trkpt lat="39.703589510445525" lon="8.693467362970551"><ele>16.0</ele><time>2026-04-27T10:13:03.811Z</time></trkpt><trkpt lat="39.70358560659981" lon="8.693305016623686"><ele>16.0</ele><time>2026-04-27T10:13:04.811Z</time></trkpt><trkpt lat="39.703598888272666" lon="8.693144484083637"><ele>16.0</ele><time>2026-04-27T10:13:05.811Z</time></trkpt><trkpt lat="39.70361013221392" lon="8.69298796944713"><ele>16.0</ele><time>2026-04-27T10:13:06.811Z</time></trkpt><trkpt lat="39.70362356167659" lon="8.692820353451843"><ele>16.0</ele><time>2026-04-27T10:13:07.811Z</time></trkpt><trkpt lat="39.703637881868026" lon="8.692647981324342"><ele>16.0</ele><time>2026-04-27T10:13:08.811Z</time></trkpt><trkpt lat="39.703655822591536" lon="8.692471045083094"><ele>16.0</ele><time>2026-04-27T10:13:09.811Z</time></trkpt><trkpt lat="39.70367670027651" lon="8.69228944682089"><ele>16.0</ele><time>2026-04-27T10:13:10.811Z</time></trkpt><trkpt lat="39.703697452195875" lon="8.692098395846799"><ele>16.0</ele><time>2026-04-27T10:13:11.811Z</time></trkpt><trkpt lat="39.70372430719818" lon="8.69189909958335"><ele>16.0</ele><time>2026-04-27T10:13:12.811Z</time></trkpt><trkpt lat="39.703743117033234" lon="8.691708897605448"><ele>16.0</ele><time>2026-04-27T10:13:13.811Z</time></trkpt><trkpt lat="39.703758567570326" lon="8.691520471264857"><ele>16.0</ele><time>2026-04-27T10:13:14.811Z</time></trkpt><trkpt lat="39.70377653244245" lon="8.69133098481562"><ele>16.0</ele><time>2026-04-27T10:13:15.811Z</time></trkpt><trkpt lat="39.70379021038223" lon="8.691142713701103"><ele>16.0</ele><time>2026-04-27T10:13:16.811Z</time></trkpt><trkpt lat="39.70379123852698" lon="8.690962990708131"><ele>16.0</ele><time>2026-04-27T10:13:17.811Z</time></trkpt><trkpt lat="39.70377467214604" lon="8.690793683421647"><ele>16.0</ele><time>2026-04-27T10:13:18.811Z</time></trkpt><trkpt lat="39.703745694147365" lon="8.690650696157096"><ele>16.0</ele><time>2026-04-27T10:13:19.811Z</time></trkpt><trkpt lat="39.703709018648354" lon="8.690535481386053"><ele>16.0</ele><time>2026-04-27T10:13:20.811Z</time></trkpt><trkpt lat="39.703674886784036" lon="8.690454976437962"><ele>16.0</ele><time>2026-04-27T10:13:21.811Z</time></trkpt><trkpt lat="39.703615897881924" lon="8.690364214368646"><ele>16.2</ele><time>2026-04-27T10:13:23.811Z</time></trkpt><trkpt lat="39.703549801358875" lon="8.690226783756698"><ele>16.400000000000002</ele><time>2026-04-27T10:13:25.811Z</time></trkpt><trkpt lat="39.70349631875166" lon="8.690152749985225"><ele>16.6</ele><time>2026-04-27T10:13:26.811Z</time></trkpt><trkpt lat="39.70342569262297" lon="8.690060037647514"><ele>16.8</ele><time>2026-04-27T10:13:27.811Z</time></trkpt><trkpt lat="39.703345114428124" lon="8.689962920707751"><ele>17.0</ele><time>2026-04-27T10:13:28.811Z</time></trkpt><trkpt lat="39.70326119776389" lon="8.689860910046955"><ele>17.0</ele><time>2026-04-27T10:13:29.811Z</time></trkpt><trkpt lat="39.7031788977338" lon="8.689752341831788"><ele>17.0</ele><time>2026-04-27T10:13:30.811Z</time></trkpt><trkpt lat="39.70308815734117" lon="8.689632639165266"><ele>17.0</ele><time>2026-04-27T10:13:31.811Z</time></trkpt><trkpt lat="39.702995156238934" lon="8.689512427521702"><ele>17.0</ele><time>2026-04-27T10:13:32.811Z</time></trkpt><trkpt lat="39.70288973316488" lon="8.689406858431735"><ele>17.5</ele><time>2026-04-27T10:13:33.811Z</time></trkpt><trkpt lat="39.702798392262814" lon="8.68928780591882"><ele>18.0</ele><time>2026-04-27T10:13:34.811Z</time></trkpt><trkpt lat="39.70270085176606" lon="8.689168670918992"><ele>18.5</ele><time>2026-04-27T10:13:35.811Z</time></trkpt><trkpt lat="39.70259439439435" lon="8.689036706530663"><ele>19.0</ele><time>2026-04-27T10:13:36.811Z</time></trkpt><trkpt lat="39.70249406648335" lon="8.688909950391217"><ele>19.0</ele><time>2026-04-27T10:13:37.811Z</time></trkpt><trkpt lat="39.70239032286397" lon="8.688780987036742"><ele>19.0</ele><time>2026-04-27T10:13:38.811Z</time></trkpt><trkpt lat="39.70228527151284" lon="8.688655569281213"><ele>19.0</ele><time>2026-04-27T10:13:39.811Z</time></trkpt><trkpt lat="39.70218412068985" lon="8.688532531061318"><ele>19.0</ele><time>2026-04-27T10:13:40.811Z</time></trkpt><trkpt lat="39.702084986547064" lon="8.688406711543626"><ele>19.0</ele><time>2026-04-27T10:13:41.811Z</time></trkpt><trkpt lat="39.70198032530319" lon="8.68828171789154"><ele>19.0</ele><time>2026-04-27T10:13:42.811Z</time></trkpt><trkpt lat="39.70186353204129" lon="8.688149929043401"><ele>19.0</ele><time>2026-04-27T10:13:43.811Z</time></trkpt><trkpt lat="39.70175740311315" lon="8.688014541298788"><ele>19.0</ele><time>2026-04-27T10:13:44.811Z</time></trkpt><trkpt lat="39.7016593057852" lon="8.68787362573868"><ele>19.0</ele><time>2026-04-27T10:13:45.809Z</time></trkpt><trkpt lat="39.701582777893215" lon="8.687730231051525"><ele>19.0</ele><time>2026-04-27T10:13:46.808Z</time></trkpt><trkpt lat="39.70152379800511" lon="8.687571892528332"><ele>19.0</ele><time>2026-04-27T10:13:47.808Z</time></trkpt><trkpt lat="39.70147669838409" lon="8.687400781878422"><ele>19.0</ele><time>2026-04-27T10:13:48.808Z</time></trkpt><trkpt lat="39.70144287217527" lon="8.687214574318958"><ele>19.0</ele><time>2026-04-27T10:13:49.809Z</time></trkpt><trkpt lat="39.701426492563996" lon="8.68702381673895"><ele>19.0</ele><time>2026-04-27T10:13:50.809Z</time></trkpt><trkpt lat="39.701423997788595" lon="8.686828740843582"><ele>19.0</ele><time>2026-04-27T10:13:51.808Z</time></trkpt><trkpt lat="39.70144668301943" lon="8.686647392967988"><ele>19.0</ele><time>2026-04-27T10:13:52.808Z</time></trkpt><trkpt lat="39.70151370073077" lon="8.686466325510528"><ele>19.0</ele><time>2026-04-27T10:13:53.808Z</time></trkpt><trkpt lat="39.7015615662969" lon="8.686272422242446"><ele>19.0</ele><time>2026-04-27T10:13:54.809Z</time></trkpt><trkpt lat="39.70163509439468" lon="8.68609888936032"><ele>19.0</ele><time>2026-04-27T10:13:55.809Z</time></trkpt><trkpt lat="39.70170703664806" lon="8.68589738028756"><ele>19.0</ele><time>2026-04-27T10:13:56.809Z</time></trkpt><trkpt lat="39.70177560861937" lon="8.685683177344702"><ele>19.0</ele><time>2026-04-27T10:13:57.808Z</time></trkpt><trkpt lat="39.701845144826024" lon="8.685457955840013"><ele>19.0</ele><time>2026-04-27T10:13:58.808Z</time></trkpt><trkpt lat="39.70191622821032" lon="8.68524101835486"><ele>18.333333333333332</ele><time>2026-04-27T10:13:59.808Z</time></trkpt><trkpt lat="39.701984078217706" lon="8.685033952889414"><ele>17.666666666666668</ele><time>2026-04-27T10:14:00.808Z</time></trkpt><trkpt lat="39.70205647896568" lon="8.684830135997522"><ele>17.0</ele><time>2026-04-27T10:14:01.808Z</time></trkpt><trkpt lat="39.70213221594915" lon="8.68461746718431"><ele>17.0</ele><time>2026-04-27T10:14:02.808Z</time></trkpt><trkpt lat="39.70220033724018" lon="8.684407241445948"><ele>17.0</ele><time>2026-04-27T10:14:03.808Z</time></trkpt><trkpt lat="39.70226457566819" lon="8.684226196725396"><ele>17.0</ele><time>2026-04-27T10:14:04.808Z</time></trkpt><trkpt lat="39.70232053467233" lon="8.684075564034272"><ele>17.0</ele><time>2026-04-27T10:14:05.808Z</time></trkpt><trkpt lat="39.70237342599898" lon="8.683932874922348"><ele>17.0</ele><time>2026-04-27T10:14:06.808Z</time></trkpt><trkpt lat="39.702424770347996" lon="8.683784054216575"><ele>17.0</ele><time>2026-04-27T10:14:07.808Z</time></trkpt><trkpt lat="39.70247583060961" lon="8.683626335222073"><ele>17.0</ele><time>2026-04-27T10:14:08.808Z</time></trkpt><trkpt lat="39.70252359543299" lon="8.683455304430277"><ele>17.0</ele><time>2026-04-27T10:14:09.808Z</time></trkpt><trkpt lat="39.70256212358166" lon="8.683321132728228"><ele>17.0</ele><time>2026-04-27T10:14:10.808Z</time></trkpt><trkpt lat="39.70260632677094" lon="8.683242813193615"><ele>17.0</ele><time>2026-04-27T10:14:11.808Z</time></trkpt><trkpt lat="39.70265153502795" lon="8.683108754563335"><ele>17.0</ele><time>2026-04-27T10:14:13.808Z</time></trkpt><trkpt lat="39.70268539087541" lon="8.68302204871808"><ele>17.0</ele><time>2026-04-27T10:14:16.808Z</time></trkpt><trkpt lat="39.70279448134547" lon="8.683083834580586"><ele>17.0</ele><time>2026-04-27T10:14:22.808Z</time></trkpt><trkpt lat="39.70284996042193" lon="8.683165711729245"><ele>17.0</ele><time>2026-04-27T10:14:24.808Z</time></trkpt><trkpt lat="39.702891626806235" lon="8.68323494350685"><ele>17.0</ele><time>2026-04-27T10:14:25.808Z</time></trkpt><trkpt lat="39.70293990202879" lon="8.68330554067963"><ele>17.0</ele><time>2026-04-27T10:14:26.808Z</time></trkpt><trkpt lat="39.703001521873574" lon="8.683385708938978"><ele>17.0</ele><time>2026-04-27T10:14:27.808Z</time></trkpt><trkpt lat="39.70307256025895" lon="8.68347307997233"><ele>17.0</ele><time>2026-04-27T10:14:28.808Z</time></trkpt><trkpt lat="39.703154580870404" lon="8.683569943043864"><ele>17.4</ele><time>2026-04-27T10:14:29.808Z</time></trkpt><trkpt lat="39.70323447393037" lon="8.683675844724014"><ele>17.799999999999997</ele><time>2026-04-27T10:14:30.808Z</time></trkpt><trkpt lat="39.70329854651374" lon="8.683765725069163"><ele>18.2</ele><time>2026-04-27T10:14:31.808Z</time></trkpt><trkpt lat="39.703353483579384" lon="8.683829866154348"><ele>18.599999999999998</ele><time>2026-04-27T10:14:32.808Z</time></trkpt><trkpt lat="39.703430703709635" lon="8.683857896912764"><ele>19.0</ele><time>2026-04-27T10:14:34.808Z</time></trkpt><trkpt lat="39.70350410499027" lon="8.683792222953832"><ele>19.0</ele><time>2026-04-27T10:14:36.808Z</time></trkpt><trkpt lat="39.7035654369671" lon="8.683714456197475"><ele>19.0</ele><time>2026-04-27T10:14:37.808Z</time></trkpt><trkpt lat="39.70363174682665" lon="8.683611480014148"><ele>19.0</ele><time>2026-04-27T10:14:38.808Z</time></trkpt><trkpt lat="39.70370621428743" lon="8.683493114230094"><ele>19.0</ele><time>2026-04-27T10:14:39.808Z</time></trkpt><trkpt lat="39.70379146823452" lon="8.68337370127788"><ele>19.0</ele><time>2026-04-27T10:14:40.808Z</time></trkpt><trkpt lat="39.703890017469824" lon="8.683243746717194"><ele>18.25</ele><time>2026-04-27T10:14:41.808Z</time></trkpt><trkpt lat="39.70398960811961" lon="8.683122190601372"><ele>17.5</ele><time>2026-04-27T10:14:42.808Z</time></trkpt><trkpt lat="39.70407974845915" lon="8.682999905791084"><ele>16.75</ele><time>2026-04-27T10:14:43.808Z</time></trkpt><trkpt lat="39.70417727932039" lon="8.682872655453036"><ele>16.0</ele><time>2026-04-27T10:14:44.808Z</time></trkpt><trkpt lat="39.704286435822276" lon="8.68273234060534"><ele>16.0</ele><time>2026-04-27T10:14:45.808Z</time></trkpt><trkpt lat="39.704398775881394" lon="8.682585303589082"><ele>16.0</ele><time>2026-04-27T10:14:46.808Z</time></trkpt><trkpt lat="39.70451370148711" lon="8.68242655841554"><ele>16.0</ele><time>2026-04-27T10:14:47.808Z</time></trkpt><trkpt lat="39.704626584378204" lon="8.682272276588256"><ele>16.0</ele><time>2026-04-27T10:14:48.808Z</time></trkpt><trkpt lat="39.70472592032719" lon="8.682143464277878"><ele>16.0</ele><time>2026-04-27T10:14:49.808Z</time></trkpt><trkpt lat="39.704818290955636" lon="8.68202452182016"><ele>16.0</ele><time>2026-04-27T10:14:50.808Z</time></trkpt><trkpt lat="39.70490854535716" lon="8.681911475263997"><ele>16.0</ele><time>2026-04-27T10:14:51.808Z</time></trkpt><trkpt lat="39.704995647185385" lon="8.681795654187042"><ele>16.0</ele><time>2026-04-27T10:14:52.808Z</time></trkpt><trkpt lat="39.70508746740442" lon="8.681676153467187"><ele>16.0</ele><time>2026-04-27T10:14:53.808Z</time></trkpt><trkpt lat="39.7051759293341" lon="8.681557575252993"><ele>16.0</ele><time>2026-04-27T10:14:54.808Z</time></trkpt><trkpt lat="39.705266753993094" lon="8.681430680134369"><ele>16.0</ele><time>2026-04-27T10:14:55.808Z</time></trkpt><trkpt lat="39.70535943249404" lon="8.681305574711972"><ele>16.0</ele><time>2026-04-27T10:14:56.808Z</time></trkpt><trkpt lat="39.705450715726364" lon="8.681177631344045"><ele>16.0</ele><time>2026-04-27T10:14:57.808Z</time></trkpt><trkpt lat="39.70554093915813" lon="8.681052732898813"><ele>16.0</ele><time>2026-04-27T10:14:58.808Z</time></trkpt><trkpt lat="39.70562505489633" lon="8.680941023072293"><ele>16.0</ele><time>2026-04-27T10:14:59.808Z</time></trkpt><trkpt lat="39.70570353723179" lon="8.680844930331407"><ele>16.0</ele><time>2026-04-27T10:15:00.808Z</time></trkpt><trkpt lat="39.70576967395998" lon="8.680757475449123"><ele>16.0</ele><time>2026-04-27T10:15:01.808Z</time></trkpt><trkpt lat="39.70583622598103" lon="8.680670063109417"><ele>16.0</ele><time>2026-04-27T10:15:02.808Z</time></trkpt><trkpt lat="39.705900436200324" lon="8.680595824877507"><ele>16.0</ele><time>2026-04-27T10:15:03.808Z</time></trkpt><trkpt lat="39.705956398485114" lon="8.68052026791573"><ele>16.0</ele><time>2026-04-27T10:15:04.808Z</time></trkpt><trkpt lat="39.70602007179978" lon="8.680429084338302"><ele>15.75</ele><time>2026-04-27T10:15:05.808Z</time></trkpt><trkpt lat="39.706088513263126" lon="8.680336059232507"><ele>15.5</ele><time>2026-04-27T10:15:06.808Z</time></trkpt><trkpt lat="39.70616611373349" lon="8.680234012135248"><ele>15.25</ele><time>2026-04-27T10:15:07.808Z</time></trkpt><trkpt lat="39.706246795944544" lon="8.680127569514996"><ele>15.0</ele><time>2026-04-27T10:15:08.808Z</time></trkpt><trkpt lat="39.706337773977914" lon="8.680006511591966"><ele>15.0</ele><time>2026-04-27T10:15:09.808Z</time></trkpt><trkpt lat="39.70642063946047" lon="8.67989513113461"><ele>15.0</ele><time>2026-04-27T10:15:10.808Z</time></trkpt><trkpt lat="39.70651541276933" lon="8.679771851172514"><ele>15.0</ele><time>2026-04-27T10:15:11.808Z</time></trkpt><trkpt lat="39.7066023517115" lon="8.679661001169501"><ele>15.0</ele><time>2026-04-27T10:15:12.808Z</time></trkpt><trkpt lat="39.706689021303255" lon="8.67954640699779"><ele>14.75</ele><time>2026-04-27T10:15:13.808Z</time></trkpt><trkpt lat="39.706783428014035" lon="8.679425892807622"><ele>14.5</ele><time>2026-04-27T10:15:14.808Z</time></trkpt><trkpt lat="39.7068780446929" lon="8.679301553419462"><ele>14.25</ele><time>2026-04-27T10:15:15.808Z</time></trkpt><trkpt lat="39.70696159611514" lon="8.679174087512747"><ele>14.0</ele><time>2026-04-27T10:15:16.807Z</time></trkpt><trkpt lat="39.70705176707392" lon="8.67904886606799"><ele>14.0</ele><time>2026-04-27T10:15:17.807Z</time></trkpt><trkpt lat="39.70714161406324" lon="8.678926229567788"><ele>14.0</ele><time>2026-04-27T10:15:18.807Z</time></trkpt><trkpt lat="39.707237662476516" lon="8.678795675138817"><ele>14.0</ele><time>2026-04-27T10:15:19.807Z</time></trkpt><trkpt lat="39.70733053396393" lon="8.678669485124738"><ele>14.0</ele><time>2026-04-27T10:15:20.807Z</time></trkpt><trkpt lat="39.707427201227524" lon="8.67854601779548"><ele>14.0</ele><time>2026-04-27T10:15:21.807Z</time></trkpt><trkpt lat="39.707523954581745" lon="8.678419038796331"><ele>14.0</ele><time>2026-04-27T10:15:22.807Z</time></trkpt><trkpt lat="39.70761744162932" lon="8.67828733733203"><ele>14.0</ele><time>2026-04-27T10:15:23.807Z</time></trkpt><trkpt lat="39.70771177068006" lon="8.678154502547422"><ele>14.0</ele><time>2026-04-27T10:15:24.807Z</time></trkpt><trkpt lat="39.707808595744105" lon="8.678026847002686"><ele>14.0</ele><time>2026-04-27T10:15:25.807Z</time></trkpt><trkpt lat="39.707906495302566" lon="8.677907334165306"><ele>14.0</ele><time>2026-04-27T10:15:26.807Z</time></trkpt><trkpt lat="39.7080030354128" lon="8.67778319345001"><ele>14.0</ele><time>2026-04-27T10:15:27.807Z</time></trkpt><trkpt lat="39.708091807534615" lon="8.677661815401514"><ele>14.0</ele><time>2026-04-27T10:15:28.807Z</time></trkpt><trkpt lat="39.70818443501747" lon="8.67753425634786"><ele>13.75</ele><time>2026-04-27T10:15:29.807Z</time></trkpt><trkpt lat="39.70827660680329" lon="8.677407986356364"><ele>13.5</ele><time>2026-04-27T10:15:30.807Z</time></trkpt><trkpt lat="39.70837587748104" lon="8.677286887717415"><ele>13.25</ele><time>2026-04-27T10:15:31.807Z</time></trkpt><trkpt lat="39.708469599595325" lon="8.677166861179973"><ele>13.0</ele><time>2026-04-27T10:15:32.807Z</time></trkpt><trkpt lat="39.708560733606916" lon="8.677038463696045"><ele>12.999999999999998</ele><time>2026-04-27T10:15:33.807Z</time></trkpt><trkpt lat="39.70864161429966" lon="8.67693098039214"><ele>13.0</ele><time>2026-04-27T10:15:34.807Z</time></trkpt><trkpt lat="39.708704143345415" lon="8.67684976290811"><ele>13.0</ele><time>2026-04-27T10:15:35.807Z</time></trkpt><trkpt lat="39.70876101989701" lon="8.676782285678238"><ele>13.0</ele><time>2026-04-27T10:15:36.807Z</time></trkpt><trkpt lat="39.70880942867915" lon="8.67672378309628"><ele>12.999999999999998</ele><time>2026-04-27T10:15:37.807Z</time></trkpt><trkpt lat="39.708855737128445" lon="8.676656368578255"><ele>13.0</ele><time>2026-04-27T10:15:38.807Z</time></trkpt><trkpt lat="39.70891024241543" lon="8.676566235375626"><ele>13.0</ele><time>2026-04-27T10:15:39.807Z</time></trkpt><trkpt lat="39.708961459391396" lon="8.676444943099563"><ele>13.0</ele><time>2026-04-27T10:15:40.807Z</time></trkpt><trkpt lat="39.70905984791902" lon="8.676353917468623"><ele>13.0</ele><time>2026-04-27T10:15:41.807Z</time></trkpt><trkpt lat="39.70914099666342" lon="8.676244461332542"><ele>13.0</ele><time>2026-04-27T10:15:42.807Z</time></trkpt><trkpt lat="39.70923119247029" lon="8.676126679482723"><ele>13.25</ele><time>2026-04-27T10:15:43.807Z</time></trkpt><trkpt lat="39.70931816069727" lon="8.676008499199018"><ele>13.5</ele><time>2026-04-27T10:15:44.807Z</time></trkpt><trkpt lat="39.709406267367946" lon="8.675895159993203"><ele>13.75</ele><time>2026-04-27T10:15:45.807Z</time></trkpt><trkpt lat="39.709497695187906" lon="8.675776689233624"><ele>14.0</ele><time>2026-04-27T10:15:46.807Z</time></trkpt><trkpt lat="39.70958371629797" lon="8.675656383210272"><ele>14.0</ele><time>2026-04-27T10:15:47.807Z</time></trkpt><trkpt lat="39.70966759384405" lon="8.675540840477108"><ele>14.0</ele><time>2026-04-27T10:15:48.807Z</time></trkpt><trkpt lat="39.70975630359694" lon="8.675424555144307"><ele>14.0</ele><time>2026-04-27T10:15:49.807Z</time></trkpt><trkpt lat="39.70984486139292" lon="8.675304035477083"><ele>14.0</ele><time>2026-04-27T10:15:50.807Z</time></trkpt><trkpt lat="39.70993606075537" lon="8.675180572583898"><ele>13.75</ele><time>2026-04-27T10:15:51.805Z</time></trkpt><trkpt lat="39.71003056466116" lon="8.67505207271239"><ele>13.5</ele><time>2026-04-27T10:15:52.805Z</time></trkpt><trkpt lat="39.71012407193923" lon="8.674928977686045"><ele>13.25</ele><time>2026-04-27T10:15:53.805Z</time></trkpt><trkpt lat="39.71021904830119" lon="8.674805363927486"><ele>13.0</ele><time>2026-04-27T10:15:54.805Z</time></trkpt><trkpt lat="39.710314691079226" lon="8.674676537590688"><ele>13.0</ele><time>2026-04-27T10:15:55.805Z</time></trkpt><trkpt lat="39.71040836851659" lon="8.674547021290003"><ele>13.0</ele><time>2026-04-27T10:15:56.805Z</time></trkpt><trkpt lat="39.71050184697148" lon="8.674419525046167"><ele>13.0</ele><time>2026-04-27T10:15:57.805Z</time></trkpt><trkpt lat="39.71059580257895" lon="8.674296798992817"><ele>13.0</ele><time>2026-04-27T10:15:58.805Z</time></trkpt><trkpt lat="39.71069112807242" lon="8.67417485037058"><ele>12.75</ele><time>2026-04-27T10:15:59.805Z</time></trkpt><trkpt lat="39.710788437198175" lon="8.674040517558934"><ele>12.5</ele><time>2026-04-27T10:16:00.805Z</time></trkpt><trkpt lat="39.710885735798065" lon="8.67391020981544"><ele>12.25</ele><time>2026-04-27T10:16:01.804Z</time></trkpt><trkpt lat="39.71098386936209" lon="8.673782288335989"><ele>12.0</ele><time>2026-04-27T10:16:02.804Z</time></trkpt><trkpt lat="39.71107756866158" lon="8.673653860557245"><ele>12.25</ele><time>2026-04-27T10:16:03.805Z</time></trkpt><trkpt lat="39.71117096870153" lon="8.673523811576581"><ele>12.5</ele><time>2026-04-27T10:16:04.804Z</time></trkpt><trkpt lat="39.71125901688976" lon="8.673406234892866"><ele>12.75</ele><time>2026-04-27T10:16:05.804Z</time></trkpt><trkpt lat="39.71134725423545" lon="8.673291304709233"><ele>13.0</ele><time>2026-04-27T10:16:06.804Z</time></trkpt><trkpt lat="39.71143479480733" lon="8.67316771365823"><ele>13.0</ele><time>2026-04-27T10:16:07.804Z</time></trkpt><trkpt lat="39.71152968033637" lon="8.673041954235764"><ele>13.0</ele><time>2026-04-27T10:16:08.804Z</time></trkpt><trkpt lat="39.71162732704216" lon="8.67291578747405"><ele>13.0</ele><time>2026-04-27T10:16:09.804Z</time></trkpt><trkpt lat="39.7117256366004" lon="8.672786828120168"><ele>13.0</ele><time>2026-04-27T10:16:10.804Z</time></trkpt><trkpt lat="39.71181783345154" lon="8.6726729312247"><ele>13.2</ele><time>2026-04-27T10:16:11.804Z</time></trkpt><trkpt lat="39.71189478670891" lon="8.672569842312663"><ele>13.4</ele><time>2026-04-27T10:16:12.804Z</time></trkpt><trkpt lat="39.71196052977754" lon="8.67248103700502"><ele>13.599999999999998</ele><time>2026-04-27T10:16:13.804Z</time></trkpt><trkpt lat="39.71202246235202" lon="8.672405554716626"><ele>13.799999999999999</ele><time>2026-04-27T10:16:14.804Z</time></trkpt><trkpt lat="39.7120814032085" lon="8.672347647611382"><ele>14.0</ele><time>2026-04-27T10:16:16.804Z</time></trkpt><trkpt lat="39.711981472226505" lon="8.67215736449124"><ele>14.0</ele><time>2026-04-27T10:16:21.804Z</time></trkpt><trkpt lat="39.71188593422382" lon="8.672095280699203"><ele>14.0</ele><time>2026-04-27T10:16:22.804Z</time></trkpt><trkpt lat="39.7117969809399" lon="8.671990676704223"><ele>14.0</ele><time>2026-04-27T10:16:23.804Z</time></trkpt><trkpt lat="39.71169924225024" lon="8.671875952450312"><ele>14.0</ele><time>2026-04-27T10:16:24.804Z</time></trkpt><trkpt lat="39.711605013065395" lon="8.671752701501596"><ele>14.0</ele><time>2026-04-27T10:16:25.804Z</time></trkpt><trkpt lat="39.711507957625955" lon="8.671637174942278"><ele>14.0</ele><time>2026-04-27T10:16:26.804Z</time></trkpt><trkpt lat="39.7113956013612" lon="8.67149764171721"><ele>14.0</ele><time>2026-04-27T10:16:27.804Z</time></trkpt><trkpt lat="39.71128822377981" lon="8.67135947858779"><ele>14.0</ele><time>2026-04-27T10:16:28.804Z</time></trkpt><trkpt lat="39.711174713206184" lon="8.671213296470608"><ele>14.333333333333334</ele><time>2026-04-27T10:16:29.804Z</time></trkpt><trkpt lat="39.71105945807952" lon="8.671068962819511"><ele>14.666666666666668</ele><time>2026-04-27T10:16:30.804Z</time></trkpt><trkpt lat="39.71094819374164" lon="8.670926283766555"><ele>15.0</ele><time>2026-04-27T10:16:31.804Z</time></trkpt><trkpt lat="39.710845486079" lon="8.670805541645365"><ele>15.0</ele><time>2026-04-27T10:16:32.804Z</time></trkpt><trkpt lat="39.71077331778677" lon="8.670720978462233"><ele>15.0</ele><time>2026-04-27T10:16:33.804Z</time></trkpt><trkpt lat="39.71071617745808" lon="8.670672784699638"><ele>15.0</ele><time>2026-04-27T10:16:34.804Z</time></trkpt><trkpt lat="39.71063531378497" lon="8.670618685264346"><ele>15.0</ele><time>2026-04-27T10:16:36.804Z</time></trkpt><trkpt lat="39.710587972017244" lon="8.67055191436671"><ele>15.0</ele><time>2026-04-27T10:16:37.804Z</time></trkpt><trkpt lat="39.71053198450578" lon="8.670477367869506"><ele>15.0</ele><time>2026-04-27T10:16:38.804Z</time></trkpt><trkpt lat="39.710460502908084" lon="8.670382798656668"><ele>15.0</ele><time>2026-04-27T10:16:39.804Z</time></trkpt><trkpt lat="39.710390645253504" lon="8.670290377934629"><ele>15.0</ele><time>2026-04-27T10:16:40.804Z</time></trkpt><trkpt lat="39.710303743632316" lon="8.670203719084554"><ele>15.0</ele><time>2026-04-27T10:16:41.804Z</time></trkpt><trkpt lat="39.710232922411194" lon="8.670105402429321"><ele>15.0</ele><time>2026-04-27T10:16:42.804Z</time></trkpt><trkpt lat="39.71015161366701" lon="8.670008554248987"><ele>15.0</ele><time>2026-04-27T10:16:43.804Z</time></trkpt><trkpt lat="39.71007116797399" lon="8.669900295871606"><ele>15.0</ele><time>2026-04-27T10:16:44.804Z</time></trkpt><trkpt lat="39.709980361612935" lon="8.669781440711212"><ele>15.0</ele><time>2026-04-27T10:16:45.804Z</time></trkpt><trkpt lat="39.7098832068049" lon="8.669659835708218"><ele>15.0</ele><time>2026-04-27T10:16:46.804Z</time></trkpt><trkpt lat="39.70979554976269" lon="8.669527163689745"><ele>15.0</ele><time>2026-04-27T10:16:47.804Z</time></trkpt><trkpt lat="39.709708419731285" lon="8.669416599828178"><ele>15.0</ele><time>2026-04-27T10:16:48.804Z</time></trkpt><trkpt lat="39.7096093864924" lon="8.669290931713574"><ele>15.0</ele><time>2026-04-27T10:16:49.804Z</time></trkpt><trkpt lat="39.70950132249812" lon="8.669180695212395"><ele>15.0</ele><time>2026-04-27T10:16:50.804Z</time></trkpt><trkpt lat="39.709413542387246" lon="8.669066065070785"><ele>15.0</ele><time>2026-04-27T10:16:51.804Z</time></trkpt><trkpt lat="39.70932152496709" lon="8.668957541455201"><ele>14.8</ele><time>2026-04-27T10:16:52.804Z</time></trkpt><trkpt lat="39.70924398349441" lon="8.668857791027074"><ele>14.6</ele><time>2026-04-27T10:16:53.804Z</time></trkpt><trkpt lat="39.709183960672085" lon="8.66875226834059"><ele>14.399999999999999</ele><time>2026-04-27T10:16:54.804Z</time></trkpt><trkpt lat="39.709094581919956" lon="8.668665843491027"><ele>14.2</ele><time>2026-04-27T10:16:55.804Z</time></trkpt><trkpt lat="39.70900912152419" lon="8.668565500228757"><ele>14.0</ele><time>2026-04-27T10:16:56.804Z</time></trkpt><trkpt lat="39.70894078326307" lon="8.668456670267501"><ele>14.000000000000002</ele><time>2026-04-27T10:16:57.804Z</time></trkpt><trkpt lat="39.70887432797404" lon="8.668368154046943"><ele>14.0</ele><time>2026-04-27T10:16:58.804Z</time></trkpt><trkpt lat="39.708809073857665" lon="8.668298872003561"><ele>14.0</ele><time>2026-04-27T10:16:59.804Z</time></trkpt><trkpt lat="39.70877420643393" lon="8.668228168670595"><ele>14.0</ele><time>2026-04-27T10:17:00.804Z</time></trkpt><trkpt lat="39.708794608483096" lon="8.6680973705998"><ele>14.000000000000002</ele><time>2026-04-27T10:17:02.804Z</time></trkpt><trkpt lat="39.70884807905932" lon="8.668042976033618"><ele>14.0</ele><time>2026-04-27T10:17:03.804Z</time></trkpt><trkpt lat="39.70890638409433" lon="8.66800065182301"><ele>14.0</ele><time>2026-04-27T10:17:04.804Z</time></trkpt><trkpt lat="39.70898665182706" lon="8.667962870598128"><ele>13.999999999999998</ele><time>2026-04-27T10:17:05.804Z</time></trkpt><trkpt lat="39.709064602001185" lon="8.66790939897217"><ele>13.999999999999998</ele><time>2026-04-27T10:17:06.804Z</time></trkpt><trkpt lat="39.709144122610944" lon="8.667825180895184"><ele>14.0</ele><time>2026-04-27T10:17:07.804Z</time></trkpt><trkpt lat="39.709198484848145" lon="8.66770480650433"><ele>14.0</ele><time>2026-04-27T10:17:08.804Z</time></trkpt><trkpt lat="39.709248615065555" lon="8.667568974812568"><ele>13.75</ele><time>2026-04-27T10:17:09.804Z</time></trkpt><trkpt lat="39.709312675270084" lon="8.667425253420017"><ele>13.5</ele><time>2026-04-27T10:17:10.804Z</time></trkpt><trkpt lat="39.709372190183096" lon="8.667255665869797"><ele>13.25</ele><time>2026-04-27T10:17:11.804Z</time></trkpt><trkpt lat="39.70944247492387" lon="8.667088431572969"><ele>13.0</ele><time>2026-04-27T10:17:12.804Z</time></trkpt><trkpt lat="39.709506407350496" lon="8.666909622899116"><ele>12.75</ele><time>2026-04-27T10:17:13.804Z</time></trkpt><trkpt lat="39.70955922690659" lon="8.666742018122484"><ele>12.5</ele><time>2026-04-27T10:17:14.804Z</time></trkpt><trkpt lat="39.70960747975235" lon="8.66658333045423"><ele>12.25</ele><time>2026-04-27T10:17:15.804Z</time></trkpt><trkpt lat="39.709651734989826" lon="8.666418991454837"><ele>12.0</ele><time>2026-04-27T10:17:16.804Z</time></trkpt><trkpt lat="39.70968954186913" lon="8.66624761341465"><ele>12.5</ele><time>2026-04-27T10:17:17.804Z</time></trkpt><trkpt lat="39.70972080918209" lon="8.666080423969577"><ele>13.0</ele><time>2026-04-27T10:17:18.804Z</time></trkpt><trkpt lat="39.70974299198682" lon="8.665916303761895"><ele>13.5</ele><time>2026-04-27T10:17:19.804Z</time></trkpt><trkpt lat="39.70976239396547" lon="8.665750379396865"><ele>14.0</ele><time>2026-04-27T10:17:20.804Z</time></trkpt><trkpt lat="39.709770422655595" lon="8.665582288804186"><ele>14.0</ele><time>2026-04-27T10:17:21.804Z</time></trkpt><trkpt lat="39.70977846470587" lon="8.665409366622468"><ele>14.0</ele><time>2026-04-27T10:17:22.804Z</time></trkpt><trkpt lat="39.70977304488768" lon="8.665222255222428"><ele>14.0</ele><time>2026-04-27T10:17:23.803Z</time></trkpt><trkpt lat="39.709773091801836" lon="8.665051601036641"><ele>14.0</ele><time>2026-04-27T10:17:24.803Z</time></trkpt><trkpt lat="39.70978632390887" lon="8.664865000681944"><ele>13.75</ele><time>2026-04-27T10:17:25.803Z</time></trkpt><trkpt lat="39.70978835864574" lon="8.664683981161595"><ele>13.5</ele><time>2026-04-27T10:17:26.803Z</time></trkpt><trkpt lat="39.70979527307597" lon="8.664525953061244"><ele>13.25</ele><time>2026-04-27T10:17:27.803Z</time></trkpt><trkpt lat="39.70980982186156" lon="8.664399373369948"><ele>13.0</ele><time>2026-04-27T10:17:28.803Z</time></trkpt><trkpt lat="39.7098327362875" lon="8.664244036217147"><ele>13.0</ele><time>2026-04-27T10:17:29.803Z</time></trkpt><trkpt lat="39.70983740622072" lon="8.664092031455393"><ele>13.0</ele><time>2026-04-27T10:17:30.803Z</time></trkpt><trkpt lat="39.70984130692929" lon="8.663929242019309"><ele>13.0</ele><time>2026-04-27T10:17:31.803Z</time></trkpt><trkpt lat="39.70983142621546" lon="8.663751049569866"><ele>13.0</ele><time>2026-04-27T10:17:32.803Z</time></trkpt><trkpt lat="39.70982366018897" lon="8.663556334817617"><ele>13.0</ele><time>2026-04-27T10:17:33.803Z</time></trkpt><trkpt lat="39.70980752099364" lon="8.663335543929737"><ele>13.0</ele><time>2026-04-27T10:17:34.803Z</time></trkpt><trkpt lat="39.709795613523376" lon="8.66311025250922"><ele>13.0</ele><time>2026-04-27T10:17:35.803Z</time></trkpt><trkpt lat="39.709781691048484" lon="8.662911998316941"><ele>13.0</ele><time>2026-04-27T10:17:36.803Z</time></trkpt><trkpt lat="39.70976586013041" lon="8.66272971257506"><ele>13.0</ele><time>2026-04-27T10:17:37.803Z</time></trkpt><trkpt lat="39.70975484331313" lon="8.662551331536406"><ele>13.0</ele><time>2026-04-27T10:17:38.803Z</time></trkpt><trkpt lat="39.709745077598306" lon="8.6623776398266"><ele>13.0</ele><time>2026-04-27T10:17:39.803Z</time></trkpt><trkpt lat="39.70973506915457" lon="8.662192668029906"><ele>13.0</ele><time>2026-04-27T10:17:40.803Z</time></trkpt><trkpt lat="39.70972153994329" lon="8.662018757079064"><ele>13.0</ele><time>2026-04-27T10:17:41.803Z</time></trkpt><trkpt lat="39.70970216524285" lon="8.661847197985525"><ele>13.0</ele><time>2026-04-27T10:17:42.803Z</time></trkpt><trkpt lat="39.7096748263227" lon="8.66171106113544"><ele>13.0</ele><time>2026-04-27T10:17:43.803Z</time></trkpt><trkpt lat="39.709662743968785" lon="8.661538159399138"><ele>13.0</ele><time>2026-04-27T10:17:44.803Z</time></trkpt><trkpt lat="39.70963806464899" lon="8.661364483716781"><ele>13.0</ele><time>2026-04-27T10:17:45.803Z</time></trkpt><trkpt lat="39.70962075284903" lon="8.661185366747823"><ele>13.0</ele><time>2026-04-27T10:17:46.803Z</time></trkpt><trkpt lat="39.70960844110967" lon="8.661005885118023"><ele>13.0</ele><time>2026-04-27T10:17:47.803Z</time></trkpt><trkpt lat="39.709599915270005" lon="8.660811173951718"><ele>13.0</ele><time>2026-04-27T10:17:48.803Z</time></trkpt><trkpt lat="39.70959308463563" lon="8.660617236686328"><ele>13.0</ele><time>2026-04-27T10:17:49.803Z</time></trkpt><trkpt lat="39.70958703064326" lon="8.660445350151797"><ele>13.0</ele><time>2026-04-27T10:17:50.803Z</time></trkpt><trkpt lat="39.709580812381105" lon="8.660268799537008"><ele>13.0</ele><time>2026-04-27T10:17:51.803Z</time></trkpt><trkpt lat="39.70956272964331" lon="8.660091698779713"><ele>13.25</ele><time>2026-04-27T10:17:52.803Z</time></trkpt><trkpt lat="39.70956411044907" lon="8.659913169906146"><ele>13.5</ele><time>2026-04-27T10:17:53.803Z</time></trkpt><trkpt lat="39.70955638807553" lon="8.6597243216256"><ele>13.75</ele><time>2026-04-27T10:17:54.803Z</time></trkpt><trkpt lat="39.70954805751496" lon="8.65952957329595"><ele>14.0</ele><time>2026-04-27T10:17:55.803Z</time></trkpt><trkpt lat="39.709539900974335" lon="8.659349276530339"><ele>14.25</ele><time>2026-04-27T10:17:56.803Z</time></trkpt><trkpt lat="39.709527942536525" lon="8.659184339623838"><ele>14.5</ele><time>2026-04-27T10:17:57.801Z</time></trkpt><trkpt lat="39.709532953848985" lon="8.659026561307085"><ele>14.75</ele><time>2026-04-27T10:17:58.802Z</time></trkpt><trkpt lat="39.709525776766526" lon="8.65886796287665"><ele>15.0</ele><time>2026-04-27T10:17:59.802Z</time></trkpt><trkpt lat="39.70949582625485" lon="8.658699220998342"><ele>14.5</ele><time>2026-04-27T10:18:00.802Z</time></trkpt><trkpt lat="39.70950129279583" lon="8.6585518838732"><ele>14.0</ele><time>2026-04-27T10:18:01.801Z</time></trkpt><trkpt lat="39.70949485040952" lon="8.658386426220948"><ele>13.5</ele><time>2026-04-27T10:18:02.801Z</time></trkpt><trkpt lat="39.70948848899556" lon="8.658223928886756"><ele>13.0</ele><time>2026-04-27T10:18:03.801Z</time></trkpt><trkpt lat="39.70948271982077" lon="8.65810038837863"><ele>13.0</ele><time>2026-04-27T10:18:04.801Z</time></trkpt><trkpt lat="39.70947697176256" lon="8.657963611818566"><ele>13.0</ele><time>2026-04-27T10:18:05.801Z</time></trkpt><trkpt lat="39.7094745749747" lon="8.657821157349355"><ele>13.0</ele><time>2026-04-27T10:18:06.801Z</time></trkpt><trkpt lat="39.70947555361983" lon="8.657666089986881"><ele>13.0</ele><time>2026-04-27T10:18:07.801Z</time></trkpt><trkpt lat="39.70947696049804" lon="8.657503402103394"><ele>13.0</ele><time>2026-04-27T10:18:08.801Z</time></trkpt><trkpt lat="39.709500456944404" lon="8.657342023616463"><ele>13.0</ele><time>2026-04-27T10:18:09.801Z</time></trkpt><trkpt lat="39.709530193310954" lon="8.657193321391924"><ele>13.0</ele><time>2026-04-27T10:18:10.801Z</time></trkpt><trkpt lat="39.709553284825496" lon="8.657069303784983"><ele>13.0</ele><time>2026-04-27T10:18:11.801Z</time></trkpt><trkpt lat="39.709561268202215" lon="8.656951957686667"><ele>13.0</ele><time>2026-04-27T10:18:12.801Z</time></trkpt><trkpt lat="39.70955659094216" lon="8.656854921436425"><ele>12.999999999999998</ele><time>2026-04-27T10:18:13.801Z</time></trkpt><trkpt lat="39.70954605030215" lon="8.656762565257532"><ele>13.0</ele><time>2026-04-27T10:18:14.801Z</time></trkpt><trkpt lat="39.709521131477615" lon="8.656676228086678"><ele>13.0</ele><time>2026-04-27T10:18:16.801Z</time></trkpt><trkpt lat="39.70944007978766" lon="8.65684019047652"><ele>13.0</ele><time>2026-04-27T10:18:22.801Z</time></trkpt><trkpt lat="39.70943786723675" lon="8.65695463032714"><ele>12.999999999999998</ele><time>2026-04-27T10:18:23.801Z</time></trkpt><trkpt lat="39.709420220551905" lon="8.657040098588013"><ele>13.0</ele><time>2026-04-27T10:18:24.801Z</time></trkpt><trkpt lat="39.70937738558478" lon="8.657128683761567"><ele>13.0</ele><time>2026-04-27T10:18:25.801Z</time></trkpt><trkpt lat="39.709234207854756" lon="8.657165497401778"><ele>13.0</ele><time>2026-04-27T10:18:27.801Z</time></trkpt><trkpt lat="39.709122963617176" lon="8.65718683326147"><ele>13.0</ele><time>2026-04-27T10:18:28.801Z</time></trkpt><trkpt lat="39.70900697137825" lon="8.657226631863411"><ele>13.0</ele><time>2026-04-27T10:18:31.801Z</time></trkpt><trkpt lat="39.708925482404304" lon="8.657236901739681"><ele>12.999999999999998</ele><time>2026-04-27T10:18:32.801Z</time></trkpt><trkpt lat="39.708855689701586" lon="8.65724609268272"><ele>13.0</ele><time>2026-04-27T10:18:33.801Z</time></trkpt><trkpt lat="39.70878179612618" lon="8.657226729119353"><ele>13.0</ele><time>2026-04-27T10:18:35.801Z</time></trkpt><trkpt lat="39.70877986053936" lon="8.657118955134344"><ele>13.0</ele><time>2026-04-27T10:18:37.801Z</time></trkpt><trkpt lat="39.70879237090354" lon="8.657018752507604"><ele>12.999999999999998</ele><time>2026-04-27T10:18:38.801Z</time></trkpt><trkpt lat="39.708792370904916" lon="8.656896786736436"><ele>13.0</ele><time>2026-04-27T10:18:39.801Z</time></trkpt><trkpt lat="39.708790284005964" lon="8.656761499673081"><ele>13.0</ele><time>2026-04-27T10:18:40.801Z</time></trkpt><trkpt lat="39.70877089453681" lon="8.65662089545651"><ele>13.0</ele><time>2026-04-27T10:18:41.801Z</time></trkpt><trkpt lat="39.70877686436343" lon="8.656486271933437"><ele>13.0</ele><time>2026-04-27T10:18:42.801Z</time></trkpt><trkpt lat="39.70877150220017" lon="8.656345811395543"><ele>13.0</ele><time>2026-04-27T10:18:43.801Z</time></trkpt><trkpt lat="39.70876504251896" lon="8.65620660297211"><ele>13.0</ele><time>2026-04-27T10:18:44.801Z</time></trkpt><trkpt lat="39.708755645989015" lon="8.656065698247417"><ele>13.0</ele><time>2026-04-27T10:18:45.801Z</time></trkpt><trkpt lat="39.708747878525" lon="8.65592561942621"><ele>13.0</ele><time>2026-04-27T10:18:46.801Z</time></trkpt><trkpt lat="39.708742858190156" lon="8.655769618056171"><ele>13.0</ele><time>2026-04-27T10:18:47.801Z</time></trkpt><trkpt lat="39.70873373278833" lon="8.655623612295704"><ele>13.0</ele><time>2026-04-27T10:18:48.801Z</time></trkpt><trkpt lat="39.70873013868615" lon="8.655479153865489"><ele>13.0</ele><time>2026-04-27T10:18:49.801Z</time></trkpt><trkpt lat="39.70872182474834" lon="8.655332538831306"><ele>13.0</ele><time>2026-04-27T10:18:50.801Z</time></trkpt><trkpt lat="39.70871490745377" lon="8.65517705478276"><ele>13.0</ele><time>2026-04-27T10:18:51.801Z</time></trkpt><trkpt lat="39.70870340689377" lon="8.654989536641613"><ele>13.0</ele><time>2026-04-27T10:18:52.801Z</time></trkpt><trkpt lat="39.70872028336496" lon="8.654848046286416"><ele>13.0</ele><time>2026-04-27T10:18:53.801Z</time></trkpt><trkpt lat="39.70871790714346" lon="8.65468614985884"><ele>13.0</ele><time>2026-04-27T10:18:54.801Z</time></trkpt><trkpt lat="39.708712338036094" lon="8.654518756251298"><ele>13.0</ele><time>2026-04-27T10:18:55.801Z</time></trkpt><trkpt lat="39.70870673808891" lon="8.654344674544866"><ele>13.0</ele><time>2026-04-27T10:18:56.801Z</time></trkpt><trkpt lat="39.70869708169956" lon="8.654170521129263"><ele>13.5</ele><time>2026-04-27T10:18:57.801Z</time></trkpt><trkpt lat="39.70868962418804" lon="8.654001617853863"><ele>14.0</ele><time>2026-04-27T10:18:58.801Z</time></trkpt><trkpt lat="39.70868286198558" lon="8.653825029772745"><ele>14.5</ele><time>2026-04-27T10:18:59.801Z</time></trkpt><trkpt lat="39.708669580356315" lon="8.653640192918667"><ele>15.0</ele><time>2026-04-27T10:19:00.801Z</time></trkpt><trkpt lat="39.7086599381392" lon="8.653456473745123"><ele>15.0</ele><time>2026-04-27T10:19:01.801Z</time></trkpt><trkpt lat="39.70865566709278" lon="8.65328372558368"><ele>15.0</ele><time>2026-04-27T10:19:02.801Z</time></trkpt><trkpt lat="39.7086426070251" lon="8.653104083291737"><ele>15.0</ele><time>2026-04-27T10:19:03.801Z</time></trkpt><trkpt lat="39.70863454023808" lon="8.652926317058688"><ele>15.0</ele><time>2026-04-27T10:19:04.801Z</time></trkpt><trkpt lat="39.70862137362555" lon="8.652742344621904"><ele>14.75</ele><time>2026-04-27T10:19:05.801Z</time></trkpt><trkpt lat="39.708613606453646" lon="8.652565121985306"><ele>14.5</ele><time>2026-04-27T10:19:06.801Z</time></trkpt><trkpt lat="39.70860173251425" lon="8.65238600437552"><ele>14.25</ele><time>2026-04-27T10:19:07.801Z</time></trkpt><trkpt lat="39.708588503582966" lon="8.652198162196083"><ele>14.0</ele><time>2026-04-27T10:19:08.801Z</time></trkpt><trkpt lat="39.70857270938923" lon="8.652019612782487"><ele>13.75</ele><time>2026-04-27T10:19:09.801Z</time></trkpt><trkpt lat="39.708560234414726" lon="8.651844475126023"><ele>13.5</ele><time>2026-04-27T10:19:10.801Z</time></trkpt><trkpt lat="39.70854702400077" lon="8.651668014447159"><ele>13.25</ele><time>2026-04-27T10:19:11.801Z</time></trkpt><trkpt lat="39.7085410455872" lon="8.651496261343304"><ele>13.0</ele><time>2026-04-27T10:19:12.8Z</time></trkpt><trkpt lat="39.70853605454643" lon="8.651324317901466"><ele>13.0</ele><time>2026-04-27T10:19:13.8Z</time></trkpt><trkpt lat="39.708528162561606" lon="8.65114970611047"><ele>13.0</ele><time>2026-04-27T10:19:14.8Z</time></trkpt><trkpt lat="39.708514189092355" lon="8.650975187857147"><ele>13.0</ele><time>2026-04-27T10:19:15.8Z</time></trkpt><trkpt lat="39.708501977233645" lon="8.65079933428956"><ele>13.0</ele><time>2026-04-27T10:19:16.8Z</time></trkpt><trkpt lat="39.70848167774769" lon="8.650618261976707"><ele>12.75</ele><time>2026-04-27T10:19:17.8Z</time></trkpt><trkpt lat="39.708485958495004" lon="8.650456424992738"><ele>12.5</ele><time>2026-04-27T10:19:18.8Z</time></trkpt><trkpt lat="39.70845994493726" lon="8.650286707690857"><ele>12.25</ele><time>2026-04-27T10:19:19.8Z</time></trkpt><trkpt lat="39.70842339528181" lon="8.650109910024177"><ele>12.0</ele><time>2026-04-27T10:19:20.8Z</time></trkpt><trkpt lat="39.708380904368326" lon="8.649936968426617"><ele>12.0</ele><time>2026-04-27T10:19:21.8Z</time></trkpt><trkpt lat="39.708337244534555" lon="8.649755336000307"><ele>12.0</ele><time>2026-04-27T10:19:22.8Z</time></trkpt><trkpt lat="39.70828245034645" lon="8.649588563950992"><ele>12.0</ele><time>2026-04-27T10:19:23.8Z</time></trkpt><trkpt lat="39.70822874324035" lon="8.649407475011419"><ele>12.0</ele><time>2026-04-27T10:19:24.8Z</time></trkpt><trkpt lat="39.70817123185783" lon="8.649231933497699"><ele>12.25</ele><time>2026-04-27T10:19:25.8Z</time></trkpt><trkpt lat="39.708114209415314" lon="8.649057783950752"><ele>12.5</ele><time>2026-04-27T10:19:26.8Z</time></trkpt><trkpt lat="39.70804336994854" lon="8.648886394980893"><ele>12.75</ele><time>2026-04-27T10:19:27.8Z</time></trkpt><trkpt lat="39.707965087546754" lon="8.648723202193986"><ele>13.0</ele><time>2026-04-27T10:19:28.8Z</time></trkpt><trkpt lat="39.707877143989535" lon="8.648560874184948"><ele>13.0</ele><time>2026-04-27T10:19:29.8Z</time></trkpt><trkpt lat="39.707792288177856" lon="8.648406623146563"><ele>13.0</ele><time>2026-04-27T10:19:30.8Z</time></trkpt><trkpt lat="39.70770631676231" lon="8.64825042251324"><ele>13.0</ele><time>2026-04-27T10:19:31.8Z</time></trkpt><trkpt lat="39.707612594942866" lon="8.648102792793399"><ele>13.0</ele><time>2026-04-27T10:19:32.8Z</time></trkpt><trkpt lat="39.70751032227332" lon="8.647951187854671"><ele>13.0</ele><time>2026-04-27T10:19:33.8Z</time></trkpt><trkpt lat="39.70741114533665" lon="8.647808332492575"><ele>13.0</ele><time>2026-04-27T10:19:34.8Z</time></trkpt><trkpt lat="39.70731285071169" lon="8.647665711287814"><ele>13.0</ele><time>2026-04-27T10:19:35.8Z</time></trkpt><trkpt lat="39.707207383810506" lon="8.647527401219941"><ele>13.0</ele><time>2026-04-27T10:19:36.8Z</time></trkpt><trkpt lat="39.70709946724516" lon="8.647404985818897"><ele>13.0</ele><time>2026-04-27T10:19:37.8Z</time></trkpt><trkpt lat="39.70698431653018" lon="8.647287033481689"><ele>13.0</ele><time>2026-04-27T10:19:38.8Z</time></trkpt><trkpt lat="39.70686673470268" lon="8.647182411661756"><ele>13.0</ele><time>2026-04-27T10:19:39.8Z</time></trkpt><trkpt lat="39.706754075778626" lon="8.647057309948156"><ele>13.0</ele><time>2026-04-27T10:19:40.8Z</time></trkpt><trkpt lat="39.70662829831722" lon="8.64695932257939"><ele>12.75</ele><time>2026-04-27T10:19:41.8Z</time></trkpt><trkpt lat="39.706483741737465" lon="8.64687842122018"><ele>12.5</ele><time>2026-04-27T10:19:42.8Z</time></trkpt><trkpt lat="39.70636260277044" lon="8.646770722436221"><ele>12.25</ele><time>2026-04-27T10:19:43.8Z</time></trkpt><trkpt lat="39.706240546677364" lon="8.646685265517807"><ele>12.0</ele><time>2026-04-27T10:19:44.8Z</time></trkpt><trkpt lat="39.70611472649665" lon="8.646597173210667"><ele>12.0</ele><time>2026-04-27T10:19:45.8Z</time></trkpt><trkpt lat="39.7060048024928" lon="8.646523753319547"><ele>12.0</ele><time>2026-04-27T10:19:46.8Z</time></trkpt><trkpt lat="39.705909675739534" lon="8.646463870589205"><ele>12.0</ele><time>2026-04-27T10:19:47.8Z</time></trkpt><trkpt lat="39.705838846961036" lon="8.646421409573824"><ele>12.0</ele><time>2026-04-27T10:19:48.8Z</time></trkpt><trkpt lat="39.705780208686186" lon="8.646386256620145"><ele>12.0</ele><time>2026-04-27T10:19:49.8Z</time></trkpt><trkpt lat="39.70567562125884" lon="8.646322367441375"><ele>12.0</ele><time>2026-04-27T10:19:52.8Z</time></trkpt><trkpt lat="39.70561678827865" lon="8.64628563073381"><ele>12.0</ele><time>2026-04-27T10:19:53.8Z</time></trkpt><trkpt lat="39.70554434734922" lon="8.646240396924394"><ele>12.0</ele><time>2026-04-27T10:19:54.8Z</time></trkpt><trkpt lat="39.705463099278" lon="8.646189601290427"><ele>12.0</ele><time>2026-04-27T10:19:55.8Z</time></trkpt><trkpt lat="39.70537746044392" lon="8.646136019222128"><ele>12.0</ele><time>2026-04-27T10:19:56.8Z</time></trkpt><trkpt lat="39.70529486754118" lon="8.646084342933195"><ele>12.0</ele><time>2026-04-27T10:19:57.8Z</time></trkpt><trkpt lat="39.705204887945015" lon="8.64602807488496"><ele>12.0</ele><time>2026-04-27T10:19:58.8Z</time></trkpt><trkpt lat="39.705115620783666" lon="8.645972955229515"><ele>12.0</ele><time>2026-04-27T10:19:59.8Z</time></trkpt><trkpt lat="39.705022190751066" lon="8.6459152651251"><ele>12.0</ele><time>2026-04-27T10:20:00.8Z</time></trkpt><trkpt lat="39.70492511824877" lon="8.645855325912448"><ele>12.0</ele><time>2026-04-27T10:20:01.8Z</time></trkpt><trkpt lat="39.70482241314305" lon="8.6457919087454"><ele>12.0</ele><time>2026-04-27T10:20:02.8Z</time></trkpt><trkpt lat="39.70470600932425" lon="8.645720033051262"><ele>12.0</ele><time>2026-04-27T10:20:03.798Z</time></trkpt><trkpt lat="39.7045900006906" lon="8.64564884731562"><ele>12.0</ele><time>2026-04-27T10:20:04.798Z</time></trkpt><trkpt lat="39.70447578645847" lon="8.64557916962189"><ele>12.0</ele><time>2026-04-27T10:20:05.798Z</time></trkpt><trkpt lat="39.704359915284215" lon="8.645508481089864"><ele>12.0</ele><time>2026-04-27T10:20:06.797Z</time></trkpt><trkpt lat="39.70423927286932" lon="8.645434881820398"><ele>12.0</ele><time>2026-04-27T10:20:07.798Z</time></trkpt><trkpt lat="39.70411192897447" lon="8.645357194241155"><ele>12.0</ele><time>2026-04-27T10:20:08.798Z</time></trkpt><trkpt lat="39.70398151039015" lon="8.645277630875512"><ele>12.0</ele><time>2026-04-27T10:20:09.798Z</time></trkpt><trkpt lat="39.703853862607204" lon="8.64519975935231"><ele>12.0</ele><time>2026-04-27T10:20:10.798Z</time></trkpt><trkpt lat="39.70372188281249" lon="8.645119243465363"><ele>12.0</ele><time>2026-04-27T10:20:11.798Z</time></trkpt><trkpt lat="39.703601572972076" lon="8.645045847138126"><ele>12.0</ele><time>2026-04-27T10:20:12.856Z</time></trkpt><trkpt lat="39.70347520260189" lon="8.644968753449685"><ele>12.0</ele><time>2026-04-27T10:20:13.856Z</time></trkpt><trkpt lat="39.703350579155" lon="8.64489180341167"><ele>12.0</ele><time>2026-04-27T10:20:14.856Z</time></trkpt><trkpt lat="39.70322594625423" lon="8.644814142961616"><ele>12.5</ele><time>2026-04-27T10:20:15.855Z</time></trkpt><trkpt lat="39.703105177915255" lon="8.644737431755331"><ele>13.0</ele><time>2026-04-27T10:20:16.855Z</time></trkpt><trkpt lat="39.70297962385163" lon="8.644660275721893"><ele>13.5</ele><time>2026-04-27T10:20:17.855Z</time></trkpt><trkpt lat="39.70284975778158" lon="8.644574977572184"><ele>14.0</ele><time>2026-04-27T10:20:18.855Z</time></trkpt><trkpt lat="39.702734530021694" lon="8.644483407726417"><ele>13.75</ele><time>2026-04-27T10:20:19.855Z</time></trkpt><trkpt lat="39.702614424390894" lon="8.64438673141662"><ele>13.5</ele><time>2026-04-27T10:20:20.855Z</time></trkpt><trkpt lat="39.702502093964426" lon="8.644282508976406"><ele>13.25</ele><time>2026-04-27T10:20:21.855Z</time></trkpt><trkpt lat="39.70238727310019" lon="8.644173573470404"><ele>13.0</ele><time>2026-04-27T10:20:22.855Z</time></trkpt><trkpt lat="39.702271589088596" lon="8.644058183827838"><ele>13.0</ele><time>2026-04-27T10:20:23.855Z</time></trkpt><trkpt lat="39.702161941180194" lon="8.643940838098185"><ele>13.0</ele><time>2026-04-27T10:20:24.855Z</time></trkpt><trkpt lat="39.70204991830484" lon="8.643824494895632"><ele>13.0</ele><time>2026-04-27T10:20:25.855Z</time></trkpt><trkpt lat="39.70195287715568" lon="8.643703261490113"><ele>13.0</ele><time>2026-04-27T10:20:26.855Z</time></trkpt><trkpt lat="39.70185078418634" lon="8.643579139406846"><ele>13.0</ele><time>2026-04-27T10:20:27.855Z</time></trkpt><trkpt lat="39.70176057192497" lon="8.643452738429405"><ele>13.0</ele><time>2026-04-27T10:20:28.855Z</time></trkpt><trkpt lat="39.70165923197197" lon="8.6433065025776"><ele>13.0</ele><time>2026-04-27T10:20:29.855Z</time></trkpt><trkpt lat="39.70155420558547" lon="8.643145623425237"><ele>13.0</ele><time>2026-04-27T10:20:30.855Z</time></trkpt><trkpt lat="39.701458580392284" lon="8.642991231706768"><ele>13.0</ele><time>2026-04-27T10:20:31.855Z</time></trkpt><trkpt lat="39.70137362827376" lon="8.642843678842324"><ele>13.0</ele><time>2026-04-27T10:20:32.855Z</time></trkpt><trkpt lat="39.701293354188" lon="8.642697482795576"><ele>13.0</ele><time>2026-04-27T10:20:33.855Z</time></trkpt><trkpt lat="39.70120787062414" lon="8.642536773155559"><ele>13.0</ele><time>2026-04-27T10:20:34.855Z</time></trkpt><trkpt lat="39.70113192777705" lon="8.642376929291487"><ele>13.25</ele><time>2026-04-27T10:20:35.855Z</time></trkpt><trkpt lat="39.70106938890321" lon="8.642221143016215"><ele>13.5</ele><time>2026-04-27T10:20:36.855Z</time></trkpt><trkpt lat="39.70100698716311" lon="8.642078007449268"><ele>13.75</ele><time>2026-04-27T10:20:37.855Z</time></trkpt><trkpt lat="39.700949347415786" lon="8.641948490303738"><ele>14.0</ele><time>2026-04-27T10:20:38.855Z</time></trkpt><trkpt lat="39.70090334692598" lon="8.641855915730389"><ele>14.000000000000002</ele><time>2026-04-27T10:20:39.855Z</time></trkpt><trkpt lat="39.7008557049531" lon="8.641761790918835"><ele>14.0</ele><time>2026-04-27T10:20:41.855Z</time></trkpt><trkpt lat="39.70077664182849" lon="8.641760522390582"><ele>14.0</ele><time>2026-04-27T10:20:42.855Z</time></trkpt><trkpt lat="39.700688786508856" lon="8.641709278522125"><ele>14.0</ele><time>2026-04-27T10:20:43.855Z</time></trkpt><trkpt lat="39.70060347406347" lon="8.64163652663515"><ele>14.000000000000002</ele><time>2026-04-27T10:20:44.855Z</time></trkpt><trkpt lat="39.700527293035165" lon="8.641591056670576"><ele>14.0</ele><time>2026-04-27T10:20:45.855Z</time></trkpt><trkpt lat="39.70046031369662" lon="8.641554225261444"><ele>14.0</ele><time>2026-04-27T10:20:46.855Z</time></trkpt><trkpt lat="39.70039333452446" lon="8.641523360748852"><ele>13.999999999999998</ele><time>2026-04-27T10:20:47.855Z</time></trkpt><trkpt lat="39.70031024932582" lon="8.641509153831155"><ele>13.999999999999998</ele><time>2026-04-27T10:20:48.855Z</time></trkpt><trkpt lat="39.70021968253854" lon="8.641513488509506"><ele>14.0</ele><time>2026-04-27T10:20:49.855Z</time></trkpt><trkpt lat="39.70011343269712" lon="8.641526615719352"><ele>14.0</ele><time>2026-04-27T10:20:50.855Z</time></trkpt><trkpt lat="39.700009810772755" lon="8.641562820896317"><ele>13.75</ele><time>2026-04-27T10:20:51.855Z</time></trkpt><trkpt lat="39.699906235297746" lon="8.641555151969277"><ele>13.5</ele><time>2026-04-27T10:20:52.855Z</time></trkpt><trkpt lat="39.69979466853516" lon="8.641571062372353"><ele>13.25</ele><time>2026-04-27T10:20:53.855Z</time></trkpt><trkpt lat="39.69967979499434" lon="8.641579548084115"><ele>13.0</ele><time>2026-04-27T10:20:54.855Z</time></trkpt><trkpt lat="39.69955844793101" lon="8.641582893715503"><ele>13.0</ele><time>2026-04-27T10:20:55.855Z</time></trkpt><trkpt lat="39.69945139751318" lon="8.641569457961172"><ele>13.0</ele><time>2026-04-27T10:20:56.855Z</time></trkpt><trkpt lat="39.69934076351867" lon="8.641529812655458"><ele>13.0</ele><time>2026-04-27T10:20:57.855Z</time></trkpt><trkpt lat="39.6992276816924" lon="8.641473591641235"><ele>13.0</ele><time>2026-04-27T10:20:58.855Z</time></trkpt><trkpt lat="39.699124046866416" lon="8.641428477789207"><ele>12.999999999999998</ele><time>2026-04-27T10:20:59.855Z</time></trkpt><trkpt lat="39.69902976351335" lon="8.641384566890727"><ele>13.0</ele><time>2026-04-27T10:21:00.855Z</time></trkpt><trkpt lat="39.69894752242152" lon="8.64137078800737"><ele>13.0</ele><time>2026-04-27T10:21:01.855Z</time></trkpt><trkpt lat="39.69885770843501" lon="8.641376596417825"><ele>13.0</ele><time>2026-04-27T10:21:02.855Z</time></trkpt><trkpt lat="39.69877152647467" lon="8.641368300761986"><ele>12.999999999999998</ele><time>2026-04-27T10:21:03.855Z</time></trkpt><trkpt lat="39.69869471308072" lon="8.641377248711596"><ele>13.0</ele><time>2026-04-27T10:21:04.855Z</time></trkpt><trkpt lat="39.69860390941731" lon="8.641381209788317"><ele>13.333333333333332</ele><time>2026-04-27T10:21:06.855Z</time></trkpt><trkpt lat="39.698541045099454" lon="8.641396489573662"><ele>13.666666666666666</ele><time>2026-04-27T10:21:14.855Z</time></trkpt><trkpt lat="39.698480792260575" lon="8.64136540213857"><ele>14.0</ele><time>2026-04-27T10:24:46.851Z</time></trkpt><trkpt lat="39.69838805318974" lon="8.641337194198913"><ele>14.333333333333332</ele><time>2026-04-27T10:24:49.851Z</time></trkpt><trkpt lat="39.69825550529345" lon="8.641361812722062"><ele>14.666666666666666</ele><time>2026-04-27T10:24:51.851Z</time></trkpt><trkpt lat="39.69817704712471" lon="8.641381600901452"><ele>15.0</ele><time>2026-04-27T10:24:52.851Z</time></trkpt><trkpt lat="39.698082690915875" lon="8.641409067623597"><ele>15.0</ele><time>2026-04-27T10:24:53.851Z</time></trkpt><trkpt lat="39.697994552338685" lon="8.64144482489051"><ele>15.0</ele><time>2026-04-27T10:24:54.851Z</time></trkpt><trkpt lat="39.697903626238244" lon="8.641485076727951"><ele>15.0</ele><time>2026-04-27T10:24:55.851Z</time></trkpt><trkpt lat="39.697820722545195" lon="8.641520068782015"><ele>15.0</ele><time>2026-04-27T10:24:56.851Z</time></trkpt><trkpt lat="39.69774632116727" lon="8.64154656288643"><ele>15.0</ele><time>2026-04-27T10:24:57.851Z</time></trkpt><trkpt lat="39.697675393568645" lon="8.641577212067167"><ele>15.0</ele><time>2026-04-27T10:24:58.851Z</time></trkpt><trkpt lat="39.69759792214023" lon="8.641592971735541"><ele>14.8</ele><time>2026-04-27T10:24:59.851Z</time></trkpt><trkpt lat="39.69751562300585" lon="8.64162331690394"><ele>14.6</ele><time>2026-04-27T10:25:00.851Z</time></trkpt><trkpt lat="39.69742611446952" lon="8.641644284980295"><ele>14.399999999999999</ele><time>2026-04-27T10:25:01.851Z</time></trkpt><trkpt lat="39.69733660761243" lon="8.641681522305278"><ele>14.2</ele><time>2026-04-27T10:25:02.851Z</time></trkpt><trkpt lat="39.697242506066885" lon="8.64172531764385"><ele>14.0</ele><time>2026-04-27T10:25:03.851Z</time></trkpt><trkpt lat="39.69716427348723" lon="8.641757156786108"><ele>14.0</ele><time>2026-04-27T10:25:04.851Z</time></trkpt><trkpt lat="39.697098194740214" lon="8.64177989343392"><ele>14.0</ele><time>2026-04-27T10:25:05.851Z</time></trkpt><trkpt lat="39.69703555122063" lon="8.64179741278058"><ele>14.0</ele><time>2026-04-27T10:25:06.851Z</time></trkpt><trkpt lat="39.69696958045939" lon="8.641809772764278"><ele>14.0</ele><time>2026-04-27T10:25:07.851Z</time></trkpt><trkpt lat="39.69690046443481" lon="8.641801683890055"><ele>14.0</ele><time>2026-04-27T10:25:08.851Z</time></trkpt><trkpt lat="39.69683783430627" lon="8.641779100494425"><ele>14.0</ele><time>2026-04-27T10:25:09.851Z</time></trkpt><trkpt lat="39.69676077517966" lon="8.641761747745157"><ele>14.0</ele><time>2026-04-27T10:25:10.851Z</time></trkpt><trkpt lat="39.696684649521224" lon="8.641765578676596"><ele>14.0</ele><time>2026-04-27T10:25:11.851Z</time></trkpt><trkpt lat="39.696596226953154" lon="8.64178521515134"><ele>13.999999999999998</ele><time>2026-04-27T10:25:12.851Z</time></trkpt><trkpt lat="39.69649673782682" lon="8.641795710377552"><ele>13.999999999999998</ele><time>2026-04-27T10:25:13.851Z</time></trkpt><trkpt lat="39.69640631267151" lon="8.641814179569225"><ele>14.0</ele><time>2026-04-27T10:25:14.851Z</time></trkpt><trkpt lat="39.696322995203815" lon="8.641833636183433"><ele>14.0</ele><time>2026-04-27T10:25:15.85Z</time></trkpt><trkpt lat="39.69623348118255" lon="8.641863545836292"><ele>14.000000000000002</ele><time>2026-04-27T10:25:16.85Z</time></trkpt><trkpt lat="39.69615807360685" lon="8.64189246167993"><ele>14.0</ele><time>2026-04-27T10:25:17.85Z</time></trkpt><trkpt lat="39.696070992713246" lon="8.641896169822527"><ele>14.0</ele><time>2026-04-27T10:25:18.85Z</time></trkpt><trkpt lat="39.696002906585115" lon="8.641893097744713"><ele>14.0</ele><time>2026-04-27T10:25:19.85Z</time></trkpt><trkpt lat="39.69592276981564" lon="8.641886478411447"><ele>14.000000000000002</ele><time>2026-04-27T10:25:20.85Z</time></trkpt><trkpt lat="39.695845123557106" lon="8.641864371649303"><ele>14.0</ele><time>2026-04-27T10:25:21.85Z</time></trkpt><trkpt lat="39.6957248002938" lon="8.641804565547806"><ele>14.0</ele><time>2026-04-27T10:25:23.85Z</time></trkpt><trkpt lat="39.695662248833194" lon="8.64176604198662"><ele>14.0</ele><time>2026-04-27T10:25:24.85Z</time></trkpt><trkpt lat="39.69558409627827" lon="8.641718361207186"><ele>14.0</ele><time>2026-04-27T10:25:25.85Z</time></trkpt><trkpt lat="39.695508040004526" lon="8.641696602096426"><ele>14.0</ele><time>2026-04-27T10:25:26.85Z</time></trkpt><trkpt lat="39.69544224901498" lon="8.641675414520684"><ele>14.0</ele><time>2026-04-27T10:25:27.85Z</time></trkpt><trkpt lat="39.69537511751688" lon="8.641686422787826"><ele>14.0</ele><time>2026-04-27T10:25:28.85Z</time></trkpt><trkpt lat="39.69530148748054" lon="8.641719225301102"><ele>14.0</ele><time>2026-04-27T10:25:29.85Z</time></trkpt><trkpt lat="39.695220419169466" lon="8.641764019448992"><ele>14.000000000000002</ele><time>2026-04-27T10:25:30.85Z</time></trkpt><trkpt lat="39.69514337604885" lon="8.641827474026387"><ele>14.0</ele><time>2026-04-27T10:25:31.85Z</time></trkpt><trkpt lat="39.69505910716379" lon="8.641900946264165"><ele>14.0</ele><time>2026-04-27T10:25:32.85Z</time></trkpt><trkpt lat="39.69498201157095" lon="8.64194532006738"><ele>14.0</ele><time>2026-04-27T10:25:33.85Z</time></trkpt><trkpt lat="39.694916124188346" lon="8.641975616661304"><ele>14.000000000000002</ele><time>2026-04-27T10:25:34.85Z</time></trkpt><trkpt lat="39.69483192474999" lon="8.641973175835092"><ele>14.0</ele><time>2026-04-27T10:25:35.85Z</time></trkpt><trkpt lat="39.69475537342929" lon="8.641943309133048"><ele>14.0</ele><time>2026-04-27T10:25:36.85Z</time></trkpt><trkpt lat="39.69468375170364" lon="8.641896387718319"><ele>13.999999999999998</ele><time>2026-04-27T10:25:37.85Z</time></trkpt><trkpt lat="39.6946184726876" lon="8.641830932237344"><ele>13.999999999999998</ele><time>2026-04-27T10:25:38.85Z</time></trkpt><trkpt lat="39.69453713679497" lon="8.641752993896269"><ele>14.0</ele><time>2026-04-27T10:25:39.85Z</time></trkpt><trkpt lat="39.69446816401245" lon="8.641674268062243"><ele>14.0</ele><time>2026-04-27T10:25:40.85Z</time></trkpt><trkpt lat="39.69440045194403" lon="8.641576226557422"><ele>14.75</ele><time>2026-04-27T10:25:41.85Z</time></trkpt><trkpt lat="39.69431869906591" lon="8.64147892482545"><ele>15.5</ele><time>2026-04-27T10:25:42.85Z</time></trkpt><trkpt lat="39.69422827863484" lon="8.64139090467665"><ele>16.25</ele><time>2026-04-27T10:25:43.85Z</time></trkpt><trkpt lat="39.694123065816676" lon="8.641310308665908"><ele>17.0</ele><time>2026-04-27T10:25:44.85Z</time></trkpt><trkpt lat="39.69401085942308" lon="8.641234353708839"><ele>17.0</ele><time>2026-04-27T10:25:45.85Z</time></trkpt><trkpt lat="39.693913502306295" lon="8.641167789356349"><ele>17.0</ele><time>2026-04-27T10:25:46.85Z</time></trkpt><trkpt lat="39.693813513946125" lon="8.64110734773266"><ele>17.0</ele><time>2026-04-27T10:25:47.85Z</time></trkpt><trkpt lat="39.69370967858323" lon="8.641072056452382"><ele>17.0</ele><time>2026-04-27T10:25:48.85Z</time></trkpt><trkpt lat="39.69361298389516" lon="8.641049107280924"><ele>17.0</ele><time>2026-04-27T10:25:49.85Z</time></trkpt><trkpt lat="39.69353989631668" lon="8.641020297186278"><ele>16.6</ele><time>2026-04-27T10:25:50.85Z</time></trkpt><trkpt lat="39.6934778863849" lon="8.640965302940167"><ele>16.2</ele><time>2026-04-27T10:25:51.85Z</time></trkpt><trkpt lat="39.69342590753244" lon="8.64089365534552"><ele>15.8</ele><time>2026-04-27T10:25:52.85Z</time></trkpt><trkpt lat="39.69335913418431" lon="8.640803285457373"><ele>15.4</ele><time>2026-04-27T10:25:53.85Z</time></trkpt><trkpt lat="39.69327655869956" lon="8.640701186730627"><ele>15.0</ele><time>2026-04-27T10:25:54.85Z</time></trkpt><trkpt lat="39.69320538313886" lon="8.640618329343365"><ele>15.0</ele><time>2026-04-27T10:25:55.85Z</time></trkpt><trkpt lat="39.6931423916618" lon="8.640540048829084"><ele>15.0</ele><time>2026-04-27T10:25:56.85Z</time></trkpt><trkpt lat="39.693089432297114" lon="8.640465354908933"><ele>15.0</ele><time>2026-04-27T10:25:57.85Z</time></trkpt><trkpt lat="39.693042645696494" lon="8.640404932173995"><ele>15.0</ele><time>2026-04-27T10:25:58.85Z</time></trkpt><trkpt lat="39.6930010494384" lon="8.640331699836956"><ele>15.0</ele><time>2026-04-27T10:26:00.85Z</time></trkpt><trkpt lat="39.69304982386481" lon="8.640201691410082"><ele>15.0</ele><time>2026-04-27T10:26:03.85Z</time></trkpt><trkpt lat="39.69309982949386" lon="8.640126839174462"><ele>14.833333333333334</ele><time>2026-04-27T10:26:04.85Z</time></trkpt><trkpt lat="39.69314646255965" lon="8.640058545545873"><ele>14.666666666666668</ele><time>2026-04-27T10:26:05.85Z</time></trkpt><trkpt lat="39.69320758070179" lon="8.639979446902458"><ele>14.5</ele><time>2026-04-27T10:26:06.85Z</time></trkpt><trkpt lat="39.69327484886537" lon="8.63990767141653"><ele>14.333333333333334</ele><time>2026-04-27T10:26:07.85Z</time></trkpt><trkpt lat="39.69335099667299" lon="8.639828108698786"><ele>14.166666666666668</ele><time>2026-04-27T10:26:08.85Z</time></trkpt><trkpt lat="39.69342074639893" lon="8.639748225574232"><ele>14.0</ele><time>2026-04-27T10:26:09.85Z</time></trkpt><trkpt lat="39.69348524563686" lon="8.639677524506501"><ele>14.0</ele><time>2026-04-27T10:26:10.85Z</time></trkpt><trkpt lat="39.69355117701877" lon="8.63959122508145"><ele>13.999999999999998</ele><time>2026-04-27T10:26:11.85Z</time></trkpt><trkpt lat="39.69360277827874" lon="8.63950519084171"><ele>13.999999999999998</ele><time>2026-04-27T10:26:12.85Z</time></trkpt><trkpt lat="39.693711552589264" lon="8.639381685373824"><ele>14.0</ele><time>2026-04-27T10:26:13.85Z</time></trkpt><trkpt lat="39.69377724417947" lon="8.639261116701842"><ele>14.0</ele><time>2026-04-27T10:26:14.85Z</time></trkpt><trkpt lat="39.693826615291655" lon="8.639143222416317"><ele>14.0</ele><time>2026-04-27T10:26:15.85Z</time></trkpt><trkpt lat="39.693867671986524" lon="8.639021666623625"><ele>13.999999999999998</ele><time>2026-04-27T10:26:16.85Z</time></trkpt><trkpt lat="39.69389975817258" lon="8.638895856944224"><ele>13.999999999999998</ele><time>2026-04-27T10:26:17.85Z</time></trkpt><trkpt lat="39.69392878663768" lon="8.638764641289425"><ele>14.0</ele><time>2026-04-27T10:26:18.85Z</time></trkpt><trkpt lat="39.69395633668816" lon="8.63863782297989"><ele>14.0</ele><time>2026-04-27T10:26:19.85Z</time></trkpt><trkpt lat="39.69398777852649" lon="8.638504726613576"><ele>14.0</ele><time>2026-04-27T10:26:20.85Z</time></trkpt><trkpt lat="39.6940195651086" lon="8.638381412781563"><ele>13.999999999999998</ele><time>2026-04-27T10:26:21.849Z</time></trkpt><trkpt lat="39.69405531300493" lon="8.638236437188164"><ele>13.999999999999998</ele><time>2026-04-27T10:26:22.849Z</time></trkpt><trkpt lat="39.69410563245175" lon="8.638121037372704"><ele>14.0</ele><time>2026-04-27T10:26:23.849Z</time></trkpt><trkpt lat="39.694156251985945" lon="8.638006948913555"><ele>14.0</ele><time>2026-04-27T10:26:24.849Z</time></trkpt><trkpt lat="39.694210253442975" lon="8.637911665320633"><ele>14.000000000000002</ele><time>2026-04-27T10:26:25.849Z</time></trkpt><trkpt lat="39.6942788765438" lon="8.637833038233017"><ele>14.0</ele><time>2026-04-27T10:26:26.849Z</time></trkpt><trkpt lat="39.69435487127407" lon="8.637764207707187"><ele>14.0</ele><time>2026-04-27T10:26:27.849Z</time></trkpt><trkpt lat="39.694438770840755" lon="8.637709325004804"><ele>14.0</ele><time>2026-04-27T10:26:28.849Z</time></trkpt><trkpt lat="39.69451229913868" lon="8.637678315037858"><ele>14.000000000000002</ele><time>2026-04-27T10:26:29.849Z</time></trkpt><trkpt lat="39.69457869820765" lon="8.637663152105146"><ele>14.0</ele><time>2026-04-27T10:26:30.849Z</time></trkpt><trkpt lat="39.694688224271154" lon="8.637717650087025"><ele>13.500000000000002</ele><time>2026-04-27T10:26:32.848Z</time></trkpt><trkpt lat="39.6947575633499" lon="8.637741269981293"><ele>13.0</ele><time>2026-04-27T10:26:33.849Z</time></trkpt><trkpt lat="39.69482013566277" lon="8.637776159801595"><ele>12.5</ele><time>2026-04-27T10:26:34.849Z</time></trkpt><trkpt lat="39.69494297217919" lon="8.637755452632428"><ele>12.0</ele><time>2026-04-27T10:26:37.849Z</time></trkpt><trkpt lat="39.69501288791041" lon="8.637714276536313"><ele>11.5</ele><time>2026-04-27T10:26:38.849Z</time></trkpt><trkpt lat="39.695083517724115" lon="8.637654985353699"><ele>11.0</ele><time>2026-04-27T10:26:40.849Z</time></trkpt><trkpt lat="39.69509640290389" lon="8.637563199331161"><ele>11.0</ele><time>2026-04-27T10:26:41.849Z</time></trkpt><trkpt lat="39.6950565263738" lon="8.637444042476385"><ele>11.0</ele><time>2026-04-27T10:26:42.849Z</time></trkpt><trkpt lat="39.694996095384816" lon="8.637345102434605"><ele>11.0</ele><time>2026-04-27T10:26:43.849Z</time></trkpt><trkpt lat="39.69491948997095" lon="8.63727323132837"><ele>11.0</ele><time>2026-04-27T10:26:44.849Z</time></trkpt><trkpt lat="39.6948357917893" lon="8.637200496430324"><ele>11.0</ele><time>2026-04-27T10:26:45.849Z</time></trkpt><trkpt lat="39.69474412318473" lon="8.6371438620488"><ele>11.0</ele><time>2026-04-27T10:26:46.849Z</time></trkpt><trkpt lat="39.69464994923658" lon="8.63709427090734"><ele>11.0</ele><time>2026-04-27T10:26:47.849Z</time></trkpt><trkpt lat="39.69458120105991" lon="8.637065440065625"><ele>11.0</ele><time>2026-04-27T10:26:48.849Z</time></trkpt><trkpt lat="39.69449596154764" lon="8.637011206070719"><ele>11.0</ele><time>2026-04-27T10:26:50.849Z</time></trkpt><trkpt lat="39.694429796979705" lon="8.636984536092857"><ele>11.0</ele><time>2026-04-27T10:26:53.849Z</time></trkpt><trkpt lat="39.69452704621282" lon="8.637066403258498"><ele>11.0</ele><time>2026-04-27T10:27:11.849Z</time></trkpt><trkpt lat="39.69460375650016" lon="8.637106003908329"><ele>11.0</ele><time>2026-04-27T10:27:12.849Z</time></trkpt><trkpt lat="39.69469195265517" lon="8.637160584839865"><ele>11.0</ele><time>2026-04-27T10:27:13.849Z</time></trkpt><trkpt lat="39.694786945167294" lon="8.637217690753742"><ele>11.0</ele><time>2026-04-27T10:27:14.849Z</time></trkpt><trkpt lat="39.69486835170266" lon="8.637277811688644"><ele>11.0</ele><time>2026-04-27T10:27:15.849Z</time></trkpt><trkpt lat="39.694943930983726" lon="8.637336395364404"><ele>11.0</ele><time>2026-04-27T10:27:16.849Z</time></trkpt><trkpt lat="39.69499767972992" lon="8.637398031142991"><ele>11.0</ele><time>2026-04-27T10:27:17.849Z</time></trkpt><trkpt lat="39.6950403184024" lon="8.637484369829878"><ele>11.0</ele><time>2026-04-27T10:27:18.849Z</time></trkpt><trkpt lat="39.69506400584026" lon="8.637568461949197"><ele>11.0</ele><time>2026-04-27T10:27:19.849Z</time></trkpt><trkpt lat="39.69505714661789" lon="8.637696458185262"><ele>11.0</ele><time>2026-04-27T10:27:21.849Z</time></trkpt><trkpt lat="39.69509432241886" lon="8.637763112127198"><ele>11.0</ele><time>2026-04-27T10:27:26.849Z</time></trkpt><trkpt lat="39.69516732595701" lon="8.637815489603673"><ele>10.8</ele><time>2026-04-27T10:27:29.849Z</time></trkpt><trkpt lat="39.69526070707932" lon="8.637830212235569"><ele>10.600000000000001</ele><time>2026-04-27T10:27:31.849Z</time></trkpt><trkpt lat="39.695352501079114" lon="8.637720631164648"><ele>10.4</ele><time>2026-04-27T10:27:33.849Z</time></trkpt><trkpt lat="39.69539855235231" lon="8.637649686256879"><ele>10.2</ele><time>2026-04-27T10:27:34.849Z</time></trkpt><trkpt lat="39.69546511405815" lon="8.637568298805741"><ele>10.0</ele><time>2026-04-27T10:27:35.849Z</time></trkpt><trkpt lat="39.69552935806467" lon="8.637480083076067"><ele>10.0</ele><time>2026-04-27T10:27:36.849Z</time></trkpt><trkpt lat="39.69558932780282" lon="8.637384013853415"><ele>10.0</ele><time>2026-04-27T10:27:37.849Z</time></trkpt><trkpt lat="39.69563395933455" lon="8.637282461334815"><ele>10.0</ele><time>2026-04-27T10:27:38.849Z</time></trkpt><trkpt lat="39.6956852210547" lon="8.637190964717078"><ele>10.0</ele><time>2026-04-27T10:27:39.849Z</time></trkpt><trkpt lat="39.6957385297527" lon="8.637126401856964"><ele>10.0</ele><time>2026-04-27T10:27:40.849Z</time></trkpt><trkpt lat="39.695838943683015" lon="8.637089604812694"><ele>10.0</ele><time>2026-04-27T10:27:42.849Z</time></trkpt><trkpt lat="39.69595703425436" lon="8.637178777441559"><ele>10.0</ele><time>2026-04-27T10:27:44.849Z</time></trkpt><trkpt lat="39.6960388742388" lon="8.637235989545955"><ele>10.0</ele><time>2026-04-27T10:27:45.849Z</time></trkpt><trkpt lat="39.69612361705849" lon="8.637287519905799"><ele>10.0</ele><time>2026-04-27T10:27:46.849Z</time></trkpt><trkpt lat="39.696203156503266" lon="8.637372774987917"><ele>10.0</ele><time>2026-04-27T10:27:47.849Z</time></trkpt><trkpt lat="39.69629601134565" lon="8.637426771713937"><ele>10.0</ele><time>2026-04-27T10:27:48.849Z</time></trkpt><trkpt lat="39.69640359133049" lon="8.63746687110566"><ele>10.25</ele><time>2026-04-27T10:27:49.849Z</time></trkpt><trkpt lat="39.69650610769281" lon="8.637533066814278"><ele>10.5</ele><time>2026-04-27T10:27:50.849Z</time></trkpt><trkpt lat="39.69659985670394" lon="8.637596403434994"><ele>10.75</ele><time>2026-04-27T10:27:51.849Z</time></trkpt><trkpt lat="39.696704321796766" lon="8.637665203203186"><ele>11.0</ele><time>2026-04-27T10:27:52.849Z</time></trkpt><trkpt lat="39.69680623911673" lon="8.637735291697203"><ele>11.0</ele><time>2026-04-27T10:27:53.849Z</time></trkpt><trkpt lat="39.696907326527956" lon="8.637801568839949"><ele>11.0</ele><time>2026-04-27T10:27:54.849Z</time></trkpt><trkpt lat="39.69701026554902" lon="8.637853848260244"><ele>11.0</ele><time>2026-04-27T10:27:55.849Z</time></trkpt><trkpt lat="39.697110438773315" lon="8.637884292762386"><ele>11.0</ele><time>2026-04-27T10:27:56.849Z</time></trkpt><trkpt lat="39.69721616775216" lon="8.6378874603896"><ele>11.0</ele><time>2026-04-27T10:27:57.849Z</time></trkpt><trkpt lat="39.69732779287026" lon="8.637902796586614"><ele>11.200000000000001</ele><time>2026-04-27T10:27:58.849Z</time></trkpt><trkpt lat="39.69744362918583" lon="8.63790047334685"><ele>11.4</ele><time>2026-04-27T10:27:59.849Z</time></trkpt><trkpt lat="39.69755362866408" lon="8.6378893350819"><ele>11.6</ele><time>2026-04-27T10:28:00.849Z</time></trkpt><trkpt lat="39.6976420149495" lon="8.637857381253248"><ele>11.8</ele><time>2026-04-27T10:28:01.849Z</time></trkpt><trkpt lat="39.69772495793339" lon="8.637857592636395"><ele>12.0</ele><time>2026-04-27T10:28:02.849Z</time></trkpt><trkpt lat="39.69780828262265" lon="8.637820601786405"><ele>12.0</ele><time>2026-04-27T10:28:03.849Z</time></trkpt><trkpt lat="39.69789405888148" lon="8.637751949978119"><ele>12.0</ele><time>2026-04-27T10:28:04.849Z</time></trkpt><trkpt lat="39.697971909732985" lon="8.637650442555046"><ele>12.0</ele><time>2026-04-27T10:28:05.849Z</time></trkpt><trkpt lat="39.69805371052014" lon="8.637539595089217"><ele>12.0</ele><time>2026-04-27T10:28:06.849Z</time></trkpt><trkpt lat="39.698138925835394" lon="8.637437969087642"><ele>12.0</ele><time>2026-04-27T10:28:07.849Z</time></trkpt><trkpt lat="39.69822147358977" lon="8.63734444455746"><ele>12.0</ele><time>2026-04-27T10:28:08.849Z</time></trkpt><trkpt lat="39.69830975477948" lon="8.637260602015653"><ele>12.0</ele><time>2026-04-27T10:28:09.849Z</time></trkpt><trkpt lat="39.6984149367277" lon="8.637191852667504"><ele>12.0</ele><time>2026-04-27T10:28:10.849Z</time></trkpt><trkpt lat="39.69852996136212" lon="8.63713980440269"><ele>12.0</ele><time>2026-04-27T10:28:11.849Z</time></trkpt><trkpt lat="39.698631293514296" lon="8.637072191058452"><ele>12.0</ele><time>2026-04-27T10:28:12.849Z</time></trkpt><trkpt lat="39.698727094119114" lon="8.63700761084832"><ele>12.0</ele><time>2026-04-27T10:28:13.849Z</time></trkpt><trkpt lat="39.69883548628227" lon="8.63692940427809"><ele>12.0</ele><time>2026-04-27T10:28:14.849Z</time></trkpt><trkpt lat="39.69894984118259" lon="8.636899506076935"><ele>12.0</ele><time>2026-04-27T10:28:15.849Z</time></trkpt><trkpt lat="39.699055480131555" lon="8.636856010367229"><ele>12.2</ele><time>2026-04-27T10:28:16.849Z</time></trkpt><trkpt lat="39.69913190995979" lon="8.636801019021233"><ele>12.399999999999999</ele><time>2026-04-27T10:28:17.849Z</time></trkpt><trkpt lat="39.699190837132186" lon="8.636735521711232"><ele>12.600000000000001</ele><time>2026-04-27T10:28:18.849Z</time></trkpt><trkpt lat="39.699272385260606" lon="8.636650473545506"><ele>12.8</ele><time>2026-04-27T10:28:19.849Z</time></trkpt><trkpt lat="39.699337098358875" lon="8.636528531403126"><ele>13.0</ele><time>2026-04-27T10:28:20.849Z</time></trkpt><trkpt lat="39.699427664833685" lon="8.63645495204683"><ele>12.999999999999998</ele><time>2026-04-27T10:28:21.849Z</time></trkpt><trkpt lat="39.69950889439757" lon="8.636395177418912"><ele>13.0</ele><time>2026-04-27T10:28:22.849Z</time></trkpt><trkpt lat="39.699579782161095" lon="8.63634745405777"><ele>13.0</ele><time>2026-04-27T10:28:23.849Z</time></trkpt><trkpt lat="39.69964819516486" lon="8.636307021243422"><ele>13.0</ele><time>2026-04-27T10:28:25.849Z</time></trkpt><trkpt lat="39.69961563938369" lon="8.636172204694716"><ele>12.999999999999998</ele><time>2026-04-27T10:28:26.849Z</time></trkpt><trkpt lat="39.69960137040624" lon="8.636084016755367"><ele>13.0</ele><time>2026-04-27T10:28:27.846Z</time></trkpt><trkpt lat="39.69957793595435" lon="8.635953863761568"><ele>13.0</ele><time>2026-04-27T10:28:28.846Z</time></trkpt><trkpt lat="39.699551685976225" lon="8.635803312996877"><ele>13.0</ele><time>2026-04-27T10:28:29.846Z</time></trkpt><trkpt lat="39.69952944008789" lon="8.63564950445048"><ele>13.0</ele><time>2026-04-27T10:28:30.847Z</time></trkpt><trkpt lat="39.69951282539546" lon="8.635472683483059"><ele>13.0</ele><time>2026-04-27T10:28:31.846Z</time></trkpt><trkpt lat="39.69950131968533" lon="8.635277737303536"><ele>12.25</ele><time>2026-04-27T10:28:32.846Z</time></trkpt><trkpt lat="39.69949654589348" lon="8.63507792397896"><ele>11.5</ele><time>2026-04-27T10:28:33.846Z</time></trkpt><trkpt lat="39.69949264121867" lon="8.634891389906635"><ele>10.75</ele><time>2026-04-27T10:28:34.846Z</time></trkpt><trkpt lat="39.69951039063518" lon="8.634704812262443"><ele>10.0</ele><time>2026-04-27T10:28:35.846Z</time></trkpt><trkpt lat="39.69952166850662" lon="8.63451906919314"><ele>10.25</ele><time>2026-04-27T10:28:36.846Z</time></trkpt><trkpt lat="39.69954030493128" lon="8.634335037534647"><ele>10.5</ele><time>2026-04-27T10:28:37.847Z</time></trkpt><trkpt lat="39.699568284798424" lon="8.634155633427854"><ele>10.75</ele><time>2026-04-27T10:28:38.847Z</time></trkpt><trkpt lat="39.69960076400793" lon="8.633980602305865"><ele>11.0</ele><time>2026-04-27T10:28:39.846Z</time></trkpt><trkpt lat="39.69963681351793" lon="8.633805408969545"><ele>11.0</ele><time>2026-04-27T10:28:40.846Z</time></trkpt><trkpt lat="39.69967769384655" lon="8.63362527870256"><ele>11.0</ele><time>2026-04-27T10:28:41.846Z</time></trkpt><trkpt lat="39.69972009345264" lon="8.633437914559869"><ele>11.0</ele><time>2026-04-27T10:28:42.846Z</time></trkpt><trkpt lat="39.6997623461087" lon="8.63325928982409"><ele>11.0</ele><time>2026-04-27T10:28:43.846Z</time></trkpt><trkpt lat="39.699807668135115" lon="8.633082785942392"><ele>11.0</ele><time>2026-04-27T10:28:44.846Z</time></trkpt><trkpt lat="39.699856064234204" lon="8.632910950264721"><ele>11.0</ele><time>2026-04-27T10:28:45.846Z</time></trkpt><trkpt lat="39.69990492808331" lon="8.632745008316414"><ele>11.0</ele><time>2026-04-27T10:28:46.846Z</time></trkpt><trkpt lat="39.69994851572712" lon="8.63256204467217"><ele>11.0</ele><time>2026-04-27T10:28:47.846Z</time></trkpt><trkpt lat="39.70002237194997" lon="8.632393591740014"><ele>11.0</ele><time>2026-04-27T10:28:48.846Z</time></trkpt><trkpt lat="39.700113754121396" lon="8.632244544566115"><ele>11.0</ele><time>2026-04-27T10:28:49.845Z</time></trkpt><trkpt lat="39.700198102804414" lon="8.632098028763567"><ele>11.0</ele><time>2026-04-27T10:28:50.845Z</time></trkpt><trkpt lat="39.70028213850638" lon="8.63194842050036"><ele>11.0</ele><time>2026-04-27T10:28:51.845Z</time></trkpt><trkpt lat="39.70036971393913" lon="8.631796628341867"><ele>10.75</ele><time>2026-04-27T10:28:52.845Z</time></trkpt><trkpt lat="39.70045229303755" lon="8.63165823925621"><ele>10.5</ele><time>2026-04-27T10:28:53.845Z</time></trkpt><trkpt lat="39.70053408100203" lon="8.631497949293399"><ele>10.25</ele><time>2026-04-27T10:28:54.845Z</time></trkpt><trkpt lat="39.70063285398077" lon="8.63135177938069"><ele>10.0</ele><time>2026-04-27T10:28:55.845Z</time></trkpt><trkpt lat="39.700736924975466" lon="8.631215951007656"><ele>10.0</ele><time>2026-04-27T10:28:56.845Z</time></trkpt><trkpt lat="39.700870539520835" lon="8.631090732356665"><ele>10.0</ele><time>2026-04-27T10:28:57.845Z</time></trkpt><trkpt lat="39.70101477233003" lon="8.630930810655395"><ele>10.0</ele><time>2026-04-27T10:28:58.845Z</time></trkpt><trkpt lat="39.701073580277196" lon="8.630865760043251"><ele>10.0</ele><time>2026-04-27T10:28:59.845Z</time></trkpt><trkpt lat="39.70119410050594" lon="8.630730473531997"><ele>10.0</ele><time>2026-04-27T10:29:00.845Z</time></trkpt><trkpt lat="39.70130649783731" lon="8.63059595548722"><ele>10.0</ele><time>2026-04-27T10:29:01.845Z</time></trkpt><trkpt lat="39.70140850497368" lon="8.630462497112376"><ele>10.0</ele><time>2026-04-27T10:29:02.845Z</time></trkpt><trkpt lat="39.70150761924716" lon="8.630325682306562"><ele>10.0</ele><time>2026-04-27T10:29:03.845Z</time></trkpt><trkpt lat="39.7016034236614" lon="8.630189177057064"><ele>10.25</ele><time>2026-04-27T10:29:04.845Z</time></trkpt><trkpt lat="39.70169822021424" lon="8.630053645350523"><ele>10.5</ele><time>2026-04-27T10:29:05.845Z</time></trkpt><trkpt lat="39.70179639674944" lon="8.629913366059373"><ele>10.75</ele><time>2026-04-27T10:29:06.845Z</time></trkpt><trkpt lat="39.70189837702618" lon="8.629773096093619"><ele>11.0</ele><time>2026-04-27T10:29:07.845Z</time></trkpt><trkpt lat="39.70200293310411" lon="8.62963537390384"><ele>11.0</ele><time>2026-04-27T10:29:08.845Z</time></trkpt><trkpt lat="39.70211017839099" lon="8.629501521414793"><ele>11.0</ele><time>2026-04-27T10:29:09.845Z</time></trkpt><trkpt lat="39.70221910942719" lon="8.629371598706129"><ele>11.0</ele><time>2026-04-27T10:29:10.845Z</time></trkpt><trkpt lat="39.70233574057544" lon="8.629233750725092"><ele>11.333333333333332</ele><time>2026-04-27T10:29:11.845Z</time></trkpt><trkpt lat="39.70244897784247" lon="8.629099914198214"><ele>11.666666666666666</ele><time>2026-04-27T10:29:12.845Z</time></trkpt><trkpt lat="39.702565507500736" lon="8.628960564499772"><ele>12.0</ele><time>2026-04-27T10:29:13.845Z</time></trkpt><trkpt lat="39.70268245340936" lon="8.628816156176995"><ele>11.666666666666666</ele><time>2026-04-27T10:29:14.845Z</time></trkpt><trkpt lat="39.70279335565622" lon="8.628669603298277"><ele>11.333333333333332</ele><time>2026-04-27T10:29:15.845Z</time></trkpt><trkpt lat="39.702893097010985" lon="8.628509863409297"><ele>11.0</ele><time>2026-04-27T10:29:16.845Z</time></trkpt><trkpt lat="39.70296213621238" lon="8.628358348147689"><ele>11.0</ele><time>2026-04-27T10:29:17.845Z</time></trkpt><trkpt lat="39.70303938579802" lon="8.628256603676043"><ele>11.0</ele><time>2026-04-27T10:29:18.845Z</time></trkpt><trkpt lat="39.7030897680631" lon="8.628171691247955"><ele>11.0</ele><time>2026-04-27T10:29:19.845Z</time></trkpt><trkpt lat="39.70314183473749" lon="8.628124448615347"><ele>11.0</ele><time>2026-04-27T10:29:20.845Z</time></trkpt><trkpt lat="39.703211746529064" lon="8.628071442303648"><ele>11.0</ele><time>2026-04-27T10:29:24.845Z</time></trkpt><trkpt lat="39.70325662355269" lon="8.627966439403108"><ele>11.0</ele><time>2026-04-27T10:29:25.845Z</time></trkpt><trkpt lat="39.70335007338441" lon="8.627875554299646"><ele>11.0</ele><time>2026-04-27T10:29:26.845Z</time></trkpt><trkpt lat="39.70343380817857" lon="8.627774732716473"><ele>11.0</ele><time>2026-04-27T10:29:27.845Z</time></trkpt><trkpt lat="39.703512659418145" lon="8.627677692065365"><ele>11.0</ele><time>2026-04-27T10:29:28.845Z</time></trkpt><trkpt lat="39.70358431936975" lon="8.62758687456231"><ele>11.0</ele><time>2026-04-27T10:29:29.845Z</time></trkpt><trkpt lat="39.70365816208325" lon="8.627491899379821"><ele>11.0</ele><time>2026-04-27T10:29:30.845Z</time></trkpt><trkpt lat="39.70373285089382" lon="8.62739184539126"><ele>10.8</ele><time>2026-04-27T10:29:31.845Z</time></trkpt><trkpt lat="39.70380529545782" lon="8.627292971490414"><ele>10.600000000000001</ele><time>2026-04-27T10:29:32.845Z</time></trkpt><trkpt lat="39.70387943592191" lon="8.62719722808256"><ele>10.4</ele><time>2026-04-27T10:29:33.845Z</time></trkpt><trkpt lat="39.703958246385966" lon="8.627094844574149"><ele>10.2</ele><time>2026-04-27T10:29:34.845Z</time></trkpt><trkpt lat="39.70404008443693" lon="8.626990504581613"><ele>10.0</ele><time>2026-04-27T10:29:35.845Z</time></trkpt><trkpt lat="39.704120770477154" lon="8.626886110170483"><ele>10.25</ele><time>2026-04-27T10:29:36.845Z</time></trkpt><trkpt lat="39.704207626095695" lon="8.626766537266757"><ele>10.5</ele><time>2026-04-27T10:29:37.845Z</time></trkpt><trkpt lat="39.704297407659794" lon="8.62665129384802"><ele>10.75</ele><time>2026-04-27T10:29:38.845Z</time></trkpt><trkpt lat="39.70438954876387" lon="8.626535525656335"><ele>11.0</ele><time>2026-04-27T10:29:39.845Z</time></trkpt><trkpt lat="39.70448083492265" lon="8.626425915383125"><ele>11.0</ele><time>2026-04-27T10:29:40.845Z</time></trkpt><trkpt lat="39.70457255443411" lon="8.626310430366347"><ele>11.0</ele><time>2026-04-27T10:29:41.845Z</time></trkpt><trkpt lat="39.70467532638547" lon="8.626177675376136"><ele>11.0</ele><time>2026-04-27T10:29:42.845Z</time></trkpt><trkpt lat="39.70477662648903" lon="8.626054389577885"><ele>11.0</ele><time>2026-04-27T10:29:43.845Z</time></trkpt><trkpt lat="39.70488066263852" lon="8.625925149324571"><ele>10.75</ele><time>2026-04-27T10:29:44.845Z</time></trkpt><trkpt lat="39.70498430628321" lon="8.625790562198397"><ele>10.5</ele><time>2026-04-27T10:29:45.845Z</time></trkpt><trkpt lat="39.70508733341985" lon="8.625654553935433"><ele>10.25</ele><time>2026-04-27T10:29:46.845Z</time></trkpt><trkpt lat="39.7051992982545" lon="8.625522915624149"><ele>10.0</ele><time>2026-04-27T10:29:47.845Z</time></trkpt><trkpt lat="39.705289727371905" lon="8.625405373664805"><ele>9.75</ele><time>2026-04-27T10:29:48.845Z</time></trkpt><trkpt lat="39.705387538368804" lon="8.625290704447124"><ele>9.5</ele><time>2026-04-27T10:29:49.845Z</time></trkpt><trkpt lat="39.70547156665258" lon="8.625181358809611"><ele>9.25</ele><time>2026-04-27T10:29:50.845Z</time></trkpt><trkpt lat="39.70556058555531" lon="8.625058976800553"><ele>9.0</ele><time>2026-04-27T10:29:51.845Z</time></trkpt><trkpt lat="39.70564773804389" lon="8.624935624465682"><ele>9.0</ele><time>2026-04-27T10:29:52.845Z</time></trkpt><trkpt lat="39.705744766170696" lon="8.624806645116799"><ele>9.0</ele><time>2026-04-27T10:29:53.845Z</time></trkpt><trkpt lat="39.70584074924769" lon="8.624690848082219"><ele>9.0</ele><time>2026-04-27T10:29:54.845Z</time></trkpt><trkpt lat="39.705944460820795" lon="8.624569132916402"><ele>9.0</ele><time>2026-04-27T10:29:55.845Z</time></trkpt><trkpt lat="39.706046145484386" lon="8.62444234550487"><ele>9.0</ele><time>2026-04-27T10:29:56.845Z</time></trkpt><trkpt lat="39.706159561707274" lon="8.624315734306165"><ele>9.0</ele><time>2026-04-27T10:29:57.845Z</time></trkpt><trkpt lat="39.70625582798216" lon="8.624189498728436"><ele>9.0</ele><time>2026-04-27T10:29:58.845Z</time></trkpt><trkpt lat="39.70635587810551" lon="8.624053200351339"><ele>9.0</ele><time>2026-04-27T10:29:59.845Z</time></trkpt><trkpt lat="39.70646401128117" lon="8.6239192065367"><ele>9.0</ele><time>2026-04-27T10:30:00.845Z</time></trkpt><trkpt lat="39.706563143650854" lon="8.62379138335858"><ele>9.0</ele><time>2026-04-27T10:30:01.845Z</time></trkpt><trkpt lat="39.70666132428218" lon="8.62367678464736"><ele>9.0</ele><time>2026-04-27T10:30:02.845Z</time></trkpt><trkpt lat="39.70675419315406" lon="8.623561689440722"><ele>9.0</ele><time>2026-04-27T10:30:03.845Z</time></trkpt><trkpt lat="39.70683225638968" lon="8.623456813183466"><ele>9.0</ele><time>2026-04-27T10:30:04.845Z</time></trkpt><trkpt lat="39.70692284131517" lon="8.623346755064675"><ele>9.0</ele><time>2026-04-27T10:30:05.845Z</time></trkpt><trkpt lat="39.706996889024936" lon="8.623245829202096"><ele>9.0</ele><time>2026-04-27T10:30:06.845Z</time></trkpt><trkpt lat="39.70706776275899" lon="8.623148473784688"><ele>9.0</ele><time>2026-04-27T10:30:07.845Z</time></trkpt><trkpt lat="39.70712154364976" lon="8.623051528249897"><ele>9.0</ele><time>2026-04-27T10:30:08.845Z</time></trkpt><trkpt lat="39.70716291171724" lon="8.62298645990412"><ele>9.0</ele><time>2026-04-27T10:30:09.845Z</time></trkpt><trkpt lat="39.70719704298598" lon="8.622910300682575"><ele>9.0</ele><time>2026-04-27T10:30:11.845Z</time></trkpt><trkpt lat="39.70710007358859" lon="8.622850351942242"><ele>9.0</ele><time>2026-04-27T10:30:16.845Z</time></trkpt><trkpt lat="39.70699541882548" lon="8.622781991504377"><ele>9.0</ele><time>2026-04-27T10:30:18.845Z</time></trkpt><trkpt lat="39.70687698801071" lon="8.622666884389208"><ele>9.0</ele><time>2026-04-27T10:30:20.845Z</time></trkpt><trkpt lat="39.70680092905133" lon="8.622604893159897"><ele>9.6</ele><time>2026-04-27T10:30:21.845Z</time></trkpt><trkpt lat="39.70673506950351" lon="8.622528939350044"><ele>10.2</ele><time>2026-04-27T10:30:22.845Z</time></trkpt><trkpt lat="39.706648615532586" lon="8.622454855401061"><ele>10.799999999999999</ele><time>2026-04-27T10:30:23.845Z</time></trkpt><trkpt lat="39.706561857062425" lon="8.622379918171807"><ele>11.4</ele><time>2026-04-27T10:30:24.845Z</time></trkpt><trkpt lat="39.70648171171546" lon="8.622327574228379"><ele>12.0</ele><time>2026-04-27T10:30:25.845Z</time></trkpt><trkpt lat="39.706403593956516" lon="8.622258005232407"><ele>12.0</ele><time>2026-04-27T10:30:26.845Z</time></trkpt><trkpt lat="39.70635055400632" lon="8.622172363797304"><ele>12.0</ele><time>2026-04-27T10:30:27.845Z</time></trkpt><trkpt lat="39.706302486375634" lon="8.622105171320758"><ele>12.0</ele><time>2026-04-27T10:30:28.845Z</time></trkpt><trkpt lat="39.706253244897" lon="8.62204095874966"><ele>12.0</ele><time>2026-04-27T10:30:29.845Z</time></trkpt><trkpt lat="39.706212403052554" lon="8.621968016611905"><ele>12.0</ele><time>2026-04-27T10:30:30.845Z</time></trkpt><trkpt lat="39.70616937845537" lon="8.621873006979351"><ele>12.0</ele><time>2026-04-27T10:30:31.845Z</time></trkpt><trkpt lat="39.70612579290825" lon="8.621780487264063"><ele>11.833333333333334</ele><time>2026-04-27T10:30:32.845Z</time></trkpt><trkpt lat="39.7060733084378" lon="8.621696353446746"><ele>11.666666666666666</ele><time>2026-04-27T10:30:33.844Z</time></trkpt><trkpt lat="39.70600317860754" lon="8.621612291475397"><ele>11.5</ele><time>2026-04-27T10:30:34.844Z</time></trkpt><trkpt lat="39.70593154742399" lon="8.621530326696924"><ele>11.333333333333332</ele><time>2026-04-27T10:30:35.844Z</time></trkpt><trkpt lat="39.70586384408437" lon="8.621451411219196"><ele>11.166666666666666</ele><time>2026-04-27T10:30:36.844Z</time></trkpt><trkpt lat="39.70581962006785" lon="8.621362656514627"><ele>11.0</ele><time>2026-04-27T10:30:37.844Z</time></trkpt><trkpt lat="39.70576212330743" lon="8.621291137101121"><ele>11.0</ele><time>2026-04-27T10:30:38.844Z</time></trkpt><trkpt lat="39.705715438597885" lon="8.621223994681511"><ele>11.0</ele><time>2026-04-27T10:30:39.843Z</time></trkpt><trkpt lat="39.70564233274584" lon="8.621125896472178"><ele>11.0</ele><time>2026-04-27T10:30:41.843Z</time></trkpt><trkpt lat="39.70558382254498" lon="8.621031043310316"><ele>11.0</ele><time>2026-04-27T10:30:43.844Z</time></trkpt><trkpt lat="39.70554392070346" lon="8.620963614495704"><ele>11.0</ele><time>2026-04-27T10:30:44.844Z</time></trkpt><trkpt lat="39.70550155158562" lon="8.62087954303477"><ele>11.0</ele><time>2026-04-27T10:30:45.843Z</time></trkpt><trkpt lat="39.70545541938741" lon="8.62079986383629"><ele>11.4</ele><time>2026-04-27T10:30:46.843Z</time></trkpt><trkpt lat="39.7054062131477" lon="8.62072456051014"><ele>11.8</ele><time>2026-04-27T10:30:47.843Z</time></trkpt><trkpt lat="39.70534598458568" lon="8.620638213741838"><ele>12.200000000000001</ele><time>2026-04-27T10:30:48.843Z</time></trkpt><trkpt lat="39.70528536700569" lon="8.620539224857287"><ele>12.600000000000001</ele><time>2026-04-27T10:30:49.843Z</time></trkpt><trkpt lat="39.705231114173" lon="8.620443529589204"><ele>13.0</ele><time>2026-04-27T10:30:50.843Z</time></trkpt><trkpt lat="39.70517633718072" lon="8.62034060279888"><ele>12.600000000000001</ele><time>2026-04-27T10:30:51.843Z</time></trkpt><trkpt lat="39.705102498115274" lon="8.620218848967802"><ele>12.200000000000001</ele><time>2026-04-27T10:30:52.843Z</time></trkpt><trkpt lat="39.70503569761879" lon="8.620114264443734"><ele>11.8</ele><time>2026-04-27T10:30:53.843Z</time></trkpt><trkpt lat="39.704965677170826" lon="8.620004804312497"><ele>11.4</ele><time>2026-04-27T10:30:54.843Z</time></trkpt><trkpt lat="39.70489869723517" lon="8.619910240740662"><ele>11.0</ele><time>2026-04-27T10:30:55.843Z</time></trkpt><trkpt lat="39.70482976713422" lon="8.619817263139193"><ele>11.0</ele><time>2026-04-27T10:30:56.843Z</time></trkpt><trkpt lat="39.704756113081345" lon="8.619733310811888"><ele>11.0</ele><time>2026-04-27T10:30:57.843Z</time></trkpt><trkpt lat="39.704682104539806" lon="8.619636571605977"><ele>11.0</ele><time>2026-04-27T10:30:58.843Z</time></trkpt><trkpt lat="39.7046062457174" lon="8.619525238106672"><ele>11.0</ele><time>2026-04-27T10:30:59.843Z</time></trkpt><trkpt lat="39.704539481492866" lon="8.619411947686567"><ele>11.0</ele><time>2026-04-27T10:31:00.843Z</time></trkpt><trkpt lat="39.704469329027845" lon="8.619298774843012"><ele>10.8</ele><time>2026-04-27T10:31:01.843Z</time></trkpt><trkpt lat="39.704394772167944" lon="8.619176597763607"><ele>10.600000000000001</ele><time>2026-04-27T10:31:02.843Z</time></trkpt><trkpt lat="39.704325245955" lon="8.61906287079072"><ele>10.4</ele><time>2026-04-27T10:31:03.843Z</time></trkpt><trkpt lat="39.70427747044945" lon="8.618945131236035"><ele>10.2</ele><time>2026-04-27T10:31:04.843Z</time></trkpt><trkpt lat="39.70421033927591" lon="8.618861686211227"><ele>10.0</ele><time>2026-04-27T10:31:05.843Z</time></trkpt><trkpt lat="39.70412779466367" lon="8.618768515166398"><ele>10.0</ele><time>2026-04-27T10:31:06.843Z</time></trkpt><trkpt lat="39.70405157061013" lon="8.618667034469834"><ele>10.0</ele><time>2026-04-27T10:31:07.843Z</time></trkpt><trkpt lat="39.70397386327156" lon="8.618546731182525"><ele>10.0</ele><time>2026-04-27T10:31:08.843Z</time></trkpt><trkpt lat="39.70390850495488" lon="8.618425247326071"><ele>10.0</ele><time>2026-04-27T10:31:09.843Z</time></trkpt><trkpt lat="39.703839938201156" lon="8.618300893031453"><ele>10.0</ele><time>2026-04-27T10:31:10.843Z</time></trkpt><trkpt lat="39.70376925758975" lon="8.618171514752653"><ele>10.0</ele><time>2026-04-27T10:31:11.843Z</time></trkpt><trkpt lat="39.70370814666849" lon="8.618052266097179"><ele>10.0</ele><time>2026-04-27T10:31:12.843Z</time></trkpt><trkpt lat="39.70363573312266" lon="8.617936722342833"><ele>10.0</ele><time>2026-04-27T10:31:13.843Z</time></trkpt><trkpt lat="39.703563547263656" lon="8.617824159054736"><ele>10.0</ele><time>2026-04-27T10:31:14.843Z</time></trkpt><trkpt lat="39.70348920074694" lon="8.617701449359123"><ele>10.0</ele><time>2026-04-27T10:31:15.843Z</time></trkpt><trkpt lat="39.70341652865739" lon="8.617573687408012"><ele>10.0</ele><time>2026-04-27T10:31:16.843Z</time></trkpt><trkpt lat="39.70334918317022" lon="8.617437340653314"><ele>10.0</ele><time>2026-04-27T10:31:17.843Z</time></trkpt><trkpt lat="39.703289648592666" lon="8.617311396239971"><ele>10.0</ele><time>2026-04-27T10:31:18.843Z</time></trkpt><trkpt lat="39.70321865396756" lon="8.617180196055308"><ele>10.0</ele><time>2026-04-27T10:31:19.843Z</time></trkpt><trkpt lat="39.70313941470465" lon="8.617060840688392"><ele>10.0</ele><time>2026-04-27T10:31:20.843Z</time></trkpt><trkpt lat="39.70305865256977" lon="8.61695537504114"><ele>10.0</ele><time>2026-04-27T10:31:21.843Z</time></trkpt><trkpt lat="39.702974063572206" lon="8.616851309627341"><ele>9.8</ele><time>2026-04-27T10:31:22.843Z</time></trkpt><trkpt lat="39.70287713428749" lon="8.616744786090521"><ele>9.6</ele><time>2026-04-27T10:31:23.843Z</time></trkpt><trkpt lat="39.70278932718003" lon="8.616645891012846"><ele>9.4</ele><time>2026-04-27T10:31:24.843Z</time></trkpt><trkpt lat="39.70271025089036" lon="8.616559937076538"><ele>9.2</ele><time>2026-04-27T10:31:25.843Z</time></trkpt><trkpt lat="39.70264679521501" lon="8.616463383681504"><ele>9.0</ele><time>2026-04-27T10:31:26.843Z</time></trkpt><trkpt lat="39.702594760449884" lon="8.616370626009934"><ele>9.0</ele><time>2026-04-27T10:31:27.843Z</time></trkpt><trkpt lat="39.70254157086949" lon="8.616277008295462"><ele>9.0</ele><time>2026-04-27T10:31:28.843Z</time></trkpt><trkpt lat="39.70247329054792" lon="8.616229568313212"><ele>9.0</ele><time>2026-04-27T10:31:29.843Z</time></trkpt><trkpt lat="39.70239572775812" lon="8.61615888232598"><ele>9.0</ele><time>2026-04-27T10:31:30.843Z</time></trkpt><trkpt lat="39.70231988421477" lon="8.616075018786654"><ele>9.0</ele><time>2026-04-27T10:31:31.843Z</time></trkpt><trkpt lat="39.70234376560592" lon="8.61592291654907"><ele>9.0</ele><time>2026-04-27T10:31:32.843Z</time></trkpt><trkpt lat="39.70220947684336" lon="8.615871839637123"><ele>9.0</ele><time>2026-04-27T10:31:33.843Z</time></trkpt><trkpt lat="39.70214583774104" lon="8.615760675086623"><ele>9.0</ele><time>2026-04-27T10:31:34.843Z</time></trkpt><trkpt lat="39.70207749419773" lon="8.615661920764138"><ele>9.0</ele><time>2026-04-27T10:31:35.843Z</time></trkpt><trkpt lat="39.70199696191795" lon="8.615544054619791"><ele>9.25</ele><time>2026-04-27T10:31:36.843Z</time></trkpt><trkpt lat="39.701909072252526" lon="8.61543417065305"><ele>9.5</ele><time>2026-04-27T10:31:37.843Z</time></trkpt><trkpt lat="39.701819136795066" lon="8.615340530346934"><ele>9.75</ele><time>2026-04-27T10:31:38.843Z</time></trkpt><trkpt lat="39.70172103627173" lon="8.61524325949127"><ele>10.0</ele><time>2026-04-27T10:31:39.843Z</time></trkpt><trkpt lat="39.70162589385005" lon="8.615166709631836"><ele>10.0</ele><time>2026-04-27T10:31:40.843Z</time></trkpt><trkpt lat="39.70153191030969" lon="8.615085690444094"><ele>10.0</ele><time>2026-04-27T10:31:41.843Z</time></trkpt><trkpt lat="39.7014187280171" lon="8.61498667440122"><ele>10.0</ele><time>2026-04-27T10:31:43.843Z</time></trkpt><trkpt lat="39.70136095010303" lon="8.614936406080538"><ele>10.0</ele><time>2026-04-27T10:31:44.843Z</time></trkpt><trkpt lat="39.701305817980874" lon="8.61488540755355"><ele>10.0</ele><time>2026-04-27T10:31:45.843Z</time></trkpt><trkpt lat="39.70124627786119" lon="8.614826682460304"><ele>10.0</ele><time>2026-04-27T10:31:46.843Z</time></trkpt><trkpt lat="39.701185268684334" lon="8.614763978570444"><ele>10.0</ele><time>2026-04-27T10:31:47.843Z</time></trkpt><trkpt lat="39.70112645369894" lon="8.614708442692844"><ele>10.0</ele><time>2026-04-27T10:31:48.843Z</time></trkpt><trkpt lat="39.70106735220816" lon="8.61465948037951"><ele>10.0</ele><time>2026-04-27T10:31:49.843Z</time></trkpt><trkpt lat="39.7010057505675" lon="8.614613571957998"><ele>10.0</ele><time>2026-04-27T10:31:50.843Z</time></trkpt><trkpt lat="39.700941491830456" lon="8.614558995415514"><ele>10.0</ele><time>2026-04-27T10:31:51.843Z</time></trkpt><trkpt lat="39.70087186954561" lon="8.614497344958806"><ele>9.8</ele><time>2026-04-27T10:31:52.843Z</time></trkpt><trkpt lat="39.70080489080547" lon="8.614424573731645"><ele>9.6</ele><time>2026-04-27T10:31:53.843Z</time></trkpt><trkpt lat="39.70074698828436" lon="8.614330936584274"><ele>9.4</ele><time>2026-04-27T10:31:54.843Z</time></trkpt><trkpt lat="39.70069119739655" lon="8.614224353936288"><ele>9.2</ele><time>2026-04-27T10:31:55.843Z</time></trkpt><trkpt lat="39.70064190976972" lon="8.614113930823256"><ele>9.0</ele><time>2026-04-27T10:31:56.843Z</time></trkpt><trkpt lat="39.700579432935385" lon="8.613996157637683"><ele>9.0</ele><time>2026-04-27T10:31:57.843Z</time></trkpt><trkpt lat="39.700536580313305" lon="8.61389501594154"><ele>9.0</ele><time>2026-04-27T10:31:58.843Z</time></trkpt><trkpt lat="39.70048289239702" lon="8.613781440169596"><ele>9.0</ele><time>2026-04-27T10:31:59.843Z</time></trkpt><trkpt lat="39.70043157965396" lon="8.613680494148403"><ele>9.0</ele><time>2026-04-27T10:32:00.843Z</time></trkpt><trkpt lat="39.70037503503749" lon="8.613579315902655"><ele>9.0</ele><time>2026-04-27T10:32:01.843Z</time></trkpt><trkpt lat="39.70031435315655" lon="8.613489883626173"><ele>8.8</ele><time>2026-04-27T10:32:02.843Z</time></trkpt><trkpt lat="39.70023906923173" lon="8.613420403284946"><ele>8.600000000000001</ele><time>2026-04-27T10:32:03.843Z</time></trkpt><trkpt lat="39.70016240303849" lon="8.613358506327677"><ele>8.4</ele><time>2026-04-27T10:32:04.843Z</time></trkpt><trkpt lat="39.700085706705316" lon="8.613326101036934"><ele>8.200000000000001</ele><time>2026-04-27T10:32:05.843Z</time></trkpt><trkpt lat="39.700000562047066" lon="8.61326879619028"><ele>8.0</ele><time>2026-04-27T10:32:06.843Z</time></trkpt><trkpt lat="39.6999181256925" lon="8.613211099075237"><ele>8.0</ele><time>2026-04-27T10:32:07.843Z</time></trkpt><trkpt lat="39.69982785874299" lon="8.61314655210321"><ele>8.0</ele><time>2026-04-27T10:32:08.843Z</time></trkpt><trkpt lat="39.69974393999148" lon="8.613069044349267"><ele>8.0</ele><time>2026-04-27T10:32:09.843Z</time></trkpt><trkpt lat="39.69965394676792" lon="8.613004788030612"><ele>8.0</ele><time>2026-04-27T10:32:10.843Z</time></trkpt><trkpt lat="39.69957518306818" lon="8.612952920466483"><ele>8.0</ele><time>2026-04-27T10:32:11.843Z</time></trkpt><trkpt lat="39.69949487635979" lon="8.61289635737964"><ele>8.0</ele><time>2026-04-27T10:32:12.843Z</time></trkpt><trkpt lat="39.6994148380956" lon="8.6128382092726"><ele>8.0</ele><time>2026-04-27T10:32:13.843Z</time></trkpt><trkpt lat="39.69933420613819" lon="8.612768337734547"><ele>8.0</ele><time>2026-04-27T10:32:14.843Z</time></trkpt><trkpt lat="39.6992457360466" lon="8.612696630030467"><ele>8.0</ele><time>2026-04-27T10:32:16.843Z</time></trkpt><trkpt lat="39.699172499855315" lon="8.612733593928713"><ele>8.0</ele><time>2026-04-27T10:32:18.843Z</time></trkpt><trkpt lat="39.69909388092649" lon="8.612832202831163"><ele>7.999999999999999</ele><time>2026-04-27T10:32:20.843Z</time></trkpt><trkpt lat="39.69903157021558" lon="8.612904062162984"><ele>8.0</ele><time>2026-04-27T10:32:21.843Z</time></trkpt><trkpt lat="39.69895949134786" lon="8.612947406928207"><ele>8.0</ele><time>2026-04-27T10:32:22.843Z</time></trkpt><trkpt lat="39.698880017467445" lon="8.612981415123956"><ele>8.0</ele><time>2026-04-27T10:32:23.843Z</time></trkpt><trkpt lat="39.69880101639663" lon="8.61297086809396"><ele>7.999999999999999</ele><time>2026-04-27T10:32:24.843Z</time></trkpt><trkpt lat="39.69873692554094" lon="8.612926121813048"><ele>8.0</ele><time>2026-04-27T10:32:25.843Z</time></trkpt><trkpt lat="39.698661959394734" lon="8.61289384996605"><ele>8.166666666666666</ele><time>2026-04-27T10:32:26.843Z</time></trkpt><trkpt lat="39.69857432837253" lon="8.612877887299762"><ele>8.333333333333332</ele><time>2026-04-27T10:32:27.843Z</time></trkpt><trkpt lat="39.69848755279143" lon="8.612917408220998"><ele>8.5</ele><time>2026-04-27T10:32:28.843Z</time></trkpt><trkpt lat="39.69844090550788" lon="8.61298496161057"><ele>8.666666666666666</ele><time>2026-04-27T10:32:29.843Z</time></trkpt><trkpt lat="39.698402951079565" lon="8.613055982647266"><ele>8.833333333333334</ele><time>2026-04-27T10:32:30.843Z</time></trkpt><trkpt lat="39.69837673296519" lon="8.613157547215817"><ele>9.0</ele><time>2026-04-27T10:32:31.843Z</time></trkpt><trkpt lat="39.69828691366085" lon="8.613239626267863"><ele>9.0</ele><time>2026-04-27T10:32:33.843Z</time></trkpt><trkpt lat="39.69817159575056" lon="8.613169235488348"><ele>9.0</ele><time>2026-04-27T10:32:34.843Z</time></trkpt><trkpt lat="39.697989706097566" lon="8.613063821658645"><ele>9.0</ele><time>2026-04-27T10:32:35.843Z</time></trkpt><trkpt lat="39.69787555812008" lon="8.613006774547866"><ele>9.0</ele><time>2026-04-27T10:32:36.843Z</time></trkpt><trkpt lat="39.697770754932925" lon="8.613006369923887"><ele>9.2</ele><time>2026-04-27T10:32:37.843Z</time></trkpt><trkpt lat="39.697667131278585" lon="8.612983046046745"><ele>9.4</ele><time>2026-04-27T10:32:38.843Z</time></trkpt><trkpt lat="39.69755182694998" lon="8.612960094273364"><ele>9.6</ele><time>2026-04-27T10:32:39.842Z</time></trkpt><trkpt lat="39.69744488369839" lon="8.612936834305442"><ele>9.8</ele><time>2026-04-27T10:32:40.842Z</time></trkpt><trkpt lat="39.69736305006262" lon="8.612927776766854"><ele>10.0</ele><time>2026-04-27T10:32:41.842Z</time></trkpt><trkpt lat="39.697271370937045" lon="8.612923335893145"><ele>10.0</ele><time>2026-04-27T10:32:42.841Z</time></trkpt><trkpt lat="39.69716270094552" lon="8.612929565772628"><ele>10.0</ele><time>2026-04-27T10:32:43.841Z</time></trkpt><trkpt lat="39.69706557762477" lon="8.61293924457995"><ele>10.0</ele><time>2026-04-27T10:32:44.841Z</time></trkpt><trkpt lat="39.69698488984596" lon="8.612962390957456"><ele>10.0</ele><time>2026-04-27T10:32:45.841Z</time></trkpt><trkpt lat="39.69690593264959" lon="8.612975225241273"><ele>10.0</ele><time>2026-04-27T10:32:46.842Z</time></trkpt><trkpt lat="39.69678261623391" lon="8.612913625647074"><ele>9.8</ele><time>2026-04-27T10:32:48.842Z</time></trkpt><trkpt lat="39.69672534569239" lon="8.612834140968499"><ele>9.6</ele><time>2026-04-27T10:32:49.841Z</time></trkpt><trkpt lat="39.696664993908314" lon="8.612737345059626"><ele>9.4</ele><time>2026-04-27T10:32:50.841Z</time></trkpt><trkpt lat="39.696579746184824" lon="8.612628259399324"><ele>9.2</ele><time>2026-04-27T10:32:51.842Z</time></trkpt><trkpt lat="39.69649890196135" lon="8.612542991967231"><ele>9.0</ele><time>2026-04-27T10:32:52.841Z</time></trkpt><trkpt lat="39.69641504438415" lon="8.612446271057829"><ele>8.75</ele><time>2026-04-27T10:32:53.841Z</time></trkpt><trkpt lat="39.69633396909498" lon="8.612332045263926"><ele>8.5</ele><time>2026-04-27T10:32:54.841Z</time></trkpt><trkpt lat="39.6962442847647" lon="8.612224323388824"><ele>8.25</ele><time>2026-04-27T10:32:55.841Z</time></trkpt><trkpt lat="39.69614347712235" lon="8.612131871727474"><ele>8.0</ele><time>2026-04-27T10:32:56.841Z</time></trkpt><trkpt lat="39.69606093577439" lon="8.612052249062232"><ele>8.666666666666666</ele><time>2026-04-27T10:32:57.841Z</time></trkpt><trkpt lat="39.69599107976968" lon="8.611974425791443"><ele>9.333333333333332</ele><time>2026-04-27T10:32:58.841Z</time></trkpt><trkpt lat="39.69591889614993" lon="8.611903515875648"><ele>10.0</ele><time>2026-04-27T10:32:59.841Z</time></trkpt><trkpt lat="39.695850939579266" lon="8.611832968827878"><ele>10.666666666666666</ele><time>2026-04-27T10:33:00.841Z</time></trkpt><trkpt lat="39.69581508228208" lon="8.61175476385477"><ele>11.333333333333334</ele><time>2026-04-27T10:33:01.841Z</time></trkpt><trkpt lat="39.69577308443547" lon="8.611639704899837"><ele>12.0</ele><time>2026-04-27T10:33:02.841Z</time></trkpt><trkpt lat="39.69572428476384" lon="8.611525031668979"><ele>12.0</ele><time>2026-04-27T10:33:03.841Z</time></trkpt><trkpt lat="39.69561936487387" lon="8.611439079951312"><ele>12.0</ele><time>2026-04-27T10:33:04.841Z</time></trkpt><trkpt lat="39.69553470401132" lon="8.611360339238193"><ele>12.0</ele><time>2026-04-27T10:33:05.841Z</time></trkpt><trkpt lat="39.695455720041245" lon="8.611249008651814"><ele>12.0</ele><time>2026-04-27T10:33:06.841Z</time></trkpt><trkpt lat="39.69538221267764" lon="8.61114163376881"><ele>12.5</ele><time>2026-04-27T10:33:07.841Z</time></trkpt><trkpt lat="39.69530135211793" lon="8.611019163909315"><ele>13.0</ele><time>2026-04-27T10:33:08.841Z</time></trkpt><trkpt lat="39.69521089144043" lon="8.61089155172873"><ele>13.5</ele><time>2026-04-27T10:33:09.841Z</time></trkpt><trkpt lat="39.695120061750075" lon="8.610771064854053"><ele>14.0</ele><time>2026-04-27T10:33:10.841Z</time></trkpt><trkpt lat="39.69503097700781" lon="8.610664548506444"><ele>14.0</ele><time>2026-04-27T10:33:11.841Z</time></trkpt><trkpt lat="39.69494240230027" lon="8.610553525092175"><ele>13.999999999999998</ele><time>2026-04-27T10:33:12.841Z</time></trkpt><trkpt lat="39.69484927064715" lon="8.610465033156457"><ele>13.999999999999998</ele><time>2026-04-27T10:33:13.841Z</time></trkpt><trkpt lat="39.69476857125083" lon="8.610393288794299"><ele>14.0</ele><time>2026-04-27T10:33:14.841Z</time></trkpt><trkpt lat="39.694696526434065" lon="8.610301409142588"><ele>14.0</ele><time>2026-04-27T10:33:15.841Z</time></trkpt><trkpt lat="39.694638385862184" lon="8.610217880667411"><ele>13.666666666666668</ele><time>2026-04-27T10:33:16.841Z</time></trkpt><trkpt lat="39.69459753015574" lon="8.610148576161324"><ele>13.333333333333334</ele><time>2026-04-27T10:33:17.841Z</time></trkpt><trkpt lat="39.694530450740174" lon="8.610094025151724"><ele>13.0</ele><time>2026-04-27T10:33:19.841Z</time></trkpt><trkpt lat="39.6944238041463" lon="8.610155756966986"><ele>12.666666666666668</ele><time>2026-04-27T10:33:22.841Z</time></trkpt><trkpt lat="39.694379915331304" lon="8.610217526775976"><ele>12.333333333333334</ele><time>2026-04-27T10:33:23.841Z</time></trkpt><trkpt lat="39.694337464104876" lon="8.610301503441796"><ele>12.0</ele><time>2026-04-27T10:33:24.841Z</time></trkpt><trkpt lat="39.69428875446987" lon="8.610376206232818"><ele>11.6</ele><time>2026-04-27T10:33:25.841Z</time></trkpt><trkpt lat="39.69421866883861" lon="8.610448917658974"><ele>11.2</ele><time>2026-04-27T10:33:26.841Z</time></trkpt><trkpt lat="39.694124721661844" lon="8.610528413669142"><ele>10.8</ele><time>2026-04-27T10:33:27.841Z</time></trkpt><trkpt lat="39.69404587362457" lon="8.610609961362616"><ele>10.4</ele><time>2026-04-27T10:33:28.841Z</time></trkpt><trkpt lat="39.69396191154763" lon="8.610711383798584"><ele>10.0</ele><time>2026-04-27T10:33:29.841Z</time></trkpt><trkpt lat="39.693878123208464" lon="8.610817313472229"><ele>10.0</ele><time>2026-04-27T10:33:30.841Z</time></trkpt><trkpt lat="39.69379676770812" lon="8.610957316775702"><ele>10.0</ele><time>2026-04-27T10:33:31.841Z</time></trkpt><trkpt lat="39.69372548520781" lon="8.611101607079716"><ele>10.0</ele><time>2026-04-27T10:33:32.841Z</time></trkpt><trkpt lat="39.69366379416745" lon="8.611242529453113"><ele>10.0</ele><time>2026-04-27T10:33:33.841Z</time></trkpt><trkpt lat="39.69360489970708" lon="8.61136598921262"><ele>9.5</ele><time>2026-04-27T10:33:34.841Z</time></trkpt><trkpt lat="39.6935454903937" lon="8.611489473808804"><ele>9.0</ele><time>2026-04-27T10:33:35.841Z</time></trkpt><trkpt lat="39.693483202912965" lon="8.611614429520193"><ele>8.5</ele><time>2026-04-27T10:33:36.841Z</time></trkpt><trkpt lat="39.69342024524975" lon="8.611745005873404"><ele>8.0</ele><time>2026-04-27T10:33:37.841Z</time></trkpt><trkpt lat="39.69331231617212" lon="8.611843283516839"><ele>8.0</ele><time>2026-04-27T10:33:38.841Z</time></trkpt><trkpt lat="39.69324417813413" lon="8.611982275739898"><ele>8.0</ele><time>2026-04-27T10:33:39.841Z</time></trkpt><trkpt lat="39.69318419146014" lon="8.612104544157667"><ele>8.0</ele><time>2026-04-27T10:33:40.841Z</time></trkpt><trkpt lat="39.69313518997661" lon="8.612235523328982"><ele>8.0</ele><time>2026-04-27T10:33:41.841Z</time></trkpt><trkpt lat="39.693059787355224" lon="8.61236067071226"><ele>8.25</ele><time>2026-04-27T10:33:42.841Z</time></trkpt><trkpt lat="39.693000375022" lon="8.612500029307434"><ele>8.5</ele><time>2026-04-27T10:33:43.841Z</time></trkpt><trkpt lat="39.6929362847838" lon="8.612615310310405"><ele>8.75</ele><time>2026-04-27T10:33:44.841Z</time></trkpt><trkpt lat="39.69287911795172" lon="8.612754910441545"><ele>9.0</ele><time>2026-04-27T10:33:45.841Z</time></trkpt><trkpt lat="39.6928150680982" lon="8.612890838021727"><ele>9.5</ele><time>2026-04-27T10:33:46.841Z</time></trkpt><trkpt lat="39.692745792591786" lon="8.613030569805177"><ele>10.0</ele><time>2026-04-27T10:33:47.841Z</time></trkpt><trkpt lat="39.6926775295348" lon="8.613165132738333"><ele>10.5</ele><time>2026-04-27T10:33:48.841Z</time></trkpt><trkpt lat="39.69260819270126" lon="8.613307038878759"><ele>11.0</ele><time>2026-04-27T10:33:49.841Z</time></trkpt><trkpt lat="39.692540798939326" lon="8.61344357365815"><ele>11.0</ele><time>2026-04-27T10:33:50.841Z</time></trkpt><trkpt lat="39.69247706806229" lon="8.613568251601128"><ele>11.0</ele><time>2026-04-27T10:33:51.841Z</time></trkpt><trkpt lat="39.69241692204056" lon="8.61368528156049"><ele>11.0</ele><time>2026-04-27T10:33:52.841Z</time></trkpt><trkpt lat="39.69236392776756" lon="8.61380510468726"><ele>11.0</ele><time>2026-04-27T10:33:53.841Z</time></trkpt><trkpt lat="39.692306675683334" lon="8.613900354239926"><ele>11.0</ele><time>2026-04-27T10:33:54.841Z</time></trkpt><trkpt lat="39.69226047567352" lon="8.61397133717669"><ele>10.8</ele><time>2026-04-27T10:33:55.841Z</time></trkpt><trkpt lat="39.6921927085301" lon="8.614049003734438"><ele>10.600000000000001</ele><time>2026-04-27T10:33:57.841Z</time></trkpt><trkpt lat="39.69209092907542" lon="8.61395930197076"><ele>10.4</ele><time>2026-04-27T10:33:59.841Z</time></trkpt><trkpt lat="39.69201400290919" lon="8.613899856192361"><ele>10.2</ele><time>2026-04-27T10:34:00.841Z</time></trkpt><trkpt lat="39.69191678341102" lon="8.61382618178575"><ele>10.0</ele><time>2026-04-27T10:34:01.841Z</time></trkpt><trkpt lat="39.691801159337984" lon="8.613768092238614"><ele>9.75</ele><time>2026-04-27T10:34:02.841Z</time></trkpt><trkpt lat="39.6916988490682" lon="8.61365661520858"><ele>9.5</ele><time>2026-04-27T10:34:03.841Z</time></trkpt><trkpt lat="39.69156819006165" lon="8.613560645661675"><ele>9.25</ele><time>2026-04-27T10:34:04.841Z</time></trkpt><trkpt lat="39.69142796381851" lon="8.613460724802176"><ele>9.0</ele><time>2026-04-27T10:34:05.841Z</time></trkpt><trkpt lat="39.69127688642848" lon="8.613383774105188"><ele>9.0</ele><time>2026-04-27T10:34:06.841Z</time></trkpt><trkpt lat="39.69114912082487" lon="8.61330200165033"><ele>9.0</ele><time>2026-04-27T10:34:07.841Z</time></trkpt><trkpt lat="39.69099857556804" lon="8.613268665575887"><ele>9.0</ele><time>2026-04-27T10:34:08.841Z</time></trkpt><trkpt lat="39.69085413802787" lon="8.613247448124156"><ele>9.0</ele><time>2026-04-27T10:34:09.841Z</time></trkpt><trkpt lat="39.6907194844391" lon="8.613226009384165"><ele>9.0</ele><time>2026-04-27T10:34:10.841Z</time></trkpt><trkpt lat="39.69058919739305" lon="8.613190288182807"><ele>9.0</ele><time>2026-04-27T10:34:11.841Z</time></trkpt><trkpt lat="39.69046315711798" lon="8.613143757504167"><ele>9.0</ele><time>2026-04-27T10:34:12.841Z</time></trkpt><trkpt lat="39.69034267662362" lon="8.613097812831708"><ele>9.0</ele><time>2026-04-27T10:34:13.841Z</time></trkpt><trkpt lat="39.6902273035494" lon="8.613060187330605"><ele>8.833333333333334</ele><time>2026-04-27T10:34:14.841Z</time></trkpt><trkpt lat="39.69012905790658" lon="8.613024143586259"><ele>8.666666666666666</ele><time>2026-04-27T10:34:15.841Z</time></trkpt><trkpt lat="39.69004034527888" lon="8.61297836343331"><ele>8.5</ele><time>2026-04-27T10:34:16.841Z</time></trkpt><trkpt lat="39.6899558884714" lon="8.612936701882672"><ele>8.333333333333332</ele><time>2026-04-27T10:34:17.841Z</time></trkpt><trkpt lat="39.68989983142597" lon="8.612888922922275"><ele>8.166666666666666</ele><time>2026-04-27T10:34:18.841Z</time></trkpt><trkpt lat="39.689859603865344" lon="8.612824181636338"><ele>8.0</ele><time>2026-04-27T10:34:19.841Z</time></trkpt><trkpt lat="39.6898029090416" lon="8.61272698802096"><ele>8.0</ele><time>2026-04-27T10:34:20.841Z</time></trkpt><trkpt lat="39.68972100913893" lon="8.612634561621215"><ele>8.0</ele><time>2026-04-27T10:34:21.841Z</time></trkpt><trkpt lat="39.689632690485574" lon="8.612542050348022"><ele>8.0</ele><time>2026-04-27T10:34:22.841Z</time></trkpt><trkpt lat="39.68954296651726" lon="8.612462848465182"><ele>8.0</ele><time>2026-04-27T10:34:23.841Z</time></trkpt><trkpt lat="39.68943804491329" lon="8.61238087147461"><ele>7.75</ele><time>2026-04-27T10:34:24.841Z</time></trkpt><trkpt lat="39.68931778811487" lon="8.612297830497559"><ele>7.5</ele><time>2026-04-27T10:34:25.841Z</time></trkpt><trkpt lat="39.68919820039711" lon="8.612214251494677"><ele>7.25</ele><time>2026-04-27T10:34:26.841Z</time></trkpt><trkpt lat="39.68908276819506" lon="8.612134777774585"><ele>7.0</ele><time>2026-04-27T10:34:27.841Z</time></trkpt><trkpt lat="39.688957908288586" lon="8.612055211773654"><ele>6.75</ele><time>2026-04-27T10:34:28.841Z</time></trkpt><trkpt lat="39.688835513159894" lon="8.611977698352408"><ele>6.5</ele><time>2026-04-27T10:34:29.841Z</time></trkpt><trkpt lat="39.688716713294724" lon="8.6118975684479"><ele>6.25</ele><time>2026-04-27T10:34:30.841Z</time></trkpt><trkpt lat="39.68861181295472" lon="8.611819485259172"><ele>6.0</ele><time>2026-04-27T10:34:31.841Z</time></trkpt><trkpt lat="39.68850279281967" lon="8.611742706146241"><ele>5.75</ele><time>2026-04-27T10:34:32.841Z</time></trkpt><trkpt lat="39.68842154849654" lon="8.611638944008195"><ele>5.5</ele><time>2026-04-27T10:34:33.841Z</time></trkpt><trkpt lat="39.688343032771904" lon="8.61154138858211"><ele>5.25</ele><time>2026-04-27T10:34:34.841Z</time></trkpt><trkpt lat="39.68826105615547" lon="8.611436276214125"><ele>5.0</ele><time>2026-04-27T10:34:35.841Z</time></trkpt><trkpt lat="39.6881809157312" lon="8.611325415899696"><ele>5.0</ele><time>2026-04-27T10:34:36.841Z</time></trkpt><trkpt lat="39.688102759759246" lon="8.61122220131366"><ele>5.0</ele><time>2026-04-27T10:34:37.841Z</time></trkpt><trkpt lat="39.68804539995096" lon="8.611160241771318"><ele>5.0</ele><time>2026-04-27T10:34:38.841Z</time></trkpt><trkpt lat="39.68799485237077" lon="8.611084985434088"><ele>5.0</ele><time>2026-04-27T10:34:40.841Z</time></trkpt><trkpt lat="39.68776733399032" lon="8.611002176603828"><ele>5.0</ele><time>2026-04-27T10:34:42.841Z</time></trkpt><trkpt lat="39.68772421831903" lon="8.610861751072349"><ele>5.0</ele><time>2026-04-27T10:34:44.841Z</time></trkpt><trkpt lat="39.68777176998298" lon="8.610764419676501"><ele>5.0</ele><time>2026-04-27T10:34:45.839Z</time></trkpt><trkpt lat="39.687782039725214" lon="8.610641983890075"><ele>5.0</ele><time>2026-04-27T10:34:46.84Z</time></trkpt><trkpt lat="39.68779541210838" lon="8.610498171868864"><ele>5.0</ele><time>2026-04-27T10:34:47.84Z</time></trkpt><trkpt lat="39.687793800150004" lon="8.610335978211072"><ele>5.0</ele><time>2026-04-27T10:34:48.84Z</time></trkpt><trkpt lat="39.68781588068366" lon="8.610182162453444"><ele>5.0</ele><time>2026-04-27T10:34:49.84Z</time></trkpt><trkpt lat="39.687829633442846" lon="8.610032652040337"><ele>5.0</ele><time>2026-04-27T10:34:50.839Z</time></trkpt><trkpt lat="39.68783483059733" lon="8.609903736535315"><ele>5.0</ele><time>2026-04-27T10:34:51.839Z</time></trkpt><trkpt lat="39.68782019281" lon="8.609795591159946"><ele>5.0</ele><time>2026-04-27T10:34:52.84Z</time></trkpt><trkpt lat="39.68778365834873" lon="8.609709577516549"><ele>4.6</ele><time>2026-04-27T10:34:53.84Z</time></trkpt><trkpt lat="39.68772675010347" lon="8.60964195542873"><ele>4.2</ele><time>2026-04-27T10:34:54.84Z</time></trkpt><trkpt lat="39.6876498630147" lon="8.609597393314985"><ele>3.8</ele><time>2026-04-27T10:34:55.839Z</time></trkpt><trkpt lat="39.6875577558539" lon="8.609561194466075"><ele>3.4</ele><time>2026-04-27T10:34:56.839Z</time></trkpt><trkpt lat="39.687447075587166" lon="8.609535469011256"><ele>3.0</ele><time>2026-04-27T10:34:57.839Z</time></trkpt><trkpt lat="39.68732222204802" lon="8.609514706119993"><ele>3.0</ele><time>2026-04-27T10:34:58.839Z</time></trkpt><trkpt lat="39.68718758015511" lon="8.609488337802077"><ele>3.0</ele><time>2026-04-27T10:34:59.839Z</time></trkpt><trkpt lat="39.68707141411322" lon="8.609460853500025"><ele>3.0</ele><time>2026-04-27T10:35:00.839Z</time></trkpt><trkpt lat="39.686954002678256" lon="8.609431549342009"><ele>3.0</ele><time>2026-04-27T10:35:01.839Z</time></trkpt><trkpt lat="39.686825522579866" lon="8.609400111051048"><ele>3.2</ele><time>2026-04-27T10:35:02.839Z</time></trkpt><trkpt lat="39.68670104594344" lon="8.609367941451547"><ele>3.4</ele><time>2026-04-27T10:35:03.839Z</time></trkpt><trkpt lat="39.6865789321637" lon="8.609344506346657"><ele>3.6000000000000005</ele><time>2026-04-27T10:35:04.839Z</time></trkpt><trkpt lat="39.68647674393984" lon="8.609358450030514"><ele>3.8000000000000003</ele><time>2026-04-27T10:35:05.839Z</time></trkpt><trkpt lat="39.686393476420484" lon="8.609410290429084"><ele>4.0</ele><time>2026-04-27T10:35:06.839Z</time></trkpt><trkpt lat="39.68632196265861" lon="8.609466480611788"><ele>3.8000000000000003</ele><time>2026-04-27T10:35:07.839Z</time></trkpt><trkpt lat="39.68626878322291" lon="8.609580533758894"><ele>3.6000000000000005</ele><time>2026-04-27T10:35:08.839Z</time></trkpt><trkpt lat="39.68623812825314" lon="8.609730508073252"><ele>3.4</ele><time>2026-04-27T10:35:09.839Z</time></trkpt><trkpt lat="39.68620812617818" lon="8.609868576183166"><ele>3.2</ele><time>2026-04-27T10:35:10.839Z</time></trkpt><trkpt lat="39.68617847654039" lon="8.610004987183512"><ele>3.0</ele><time>2026-04-27T10:35:11.839Z</time></trkpt><trkpt lat="39.686154255529665" lon="8.610107362094642"><ele>3.0</ele><time>2026-04-27T10:35:12.839Z</time></trkpt><trkpt lat="39.6861103655101" lon="8.610197031918107"><ele>3.0</ele><time>2026-04-27T10:35:14.839Z</time></trkpt><trkpt lat="39.68601383466505" lon="8.610199752558382"><ele>3.0</ele><time>2026-04-27T10:35:16.839Z</time></trkpt><trkpt lat="39.68593261210868" lon="8.610168877579563"><ele>3.0</ele><time>2026-04-27T10:35:17.839Z</time></trkpt><trkpt lat="39.685840042356396" lon="8.610141649083255"><ele>3.0</ele><time>2026-04-27T10:35:18.839Z</time></trkpt><trkpt lat="39.68572724633519" lon="8.610115999331171"><ele>3.5</ele><time>2026-04-27T10:35:19.839Z</time></trkpt><trkpt lat="39.68560875074529" lon="8.610091297898594"><ele>4.0</ele><time>2026-04-27T10:35:20.839Z</time></trkpt><trkpt lat="39.68547725930157" lon="8.610073544770001"><ele>4.5</ele><time>2026-04-27T10:35:21.839Z</time></trkpt><trkpt lat="39.68534004103362" lon="8.6100680401285"><ele>5.0</ele><time>2026-04-27T10:35:22.839Z</time></trkpt><trkpt lat="39.68519897989795" lon="8.610065879033728"><ele>5.25</ele><time>2026-04-27T10:35:23.839Z</time></trkpt><trkpt lat="39.68506066589939" lon="8.610067504177056"><ele>5.5</ele><time>2026-04-27T10:35:24.84Z</time></trkpt><trkpt lat="39.68492579985699" lon="8.610040670590932"><ele>5.75</ele><time>2026-04-27T10:35:25.84Z</time></trkpt><trkpt lat="39.68479781040161" lon="8.610034074558001"><ele>6.0</ele><time>2026-04-27T10:35:26.841Z</time></trkpt><trkpt lat="39.68465994914206" lon="8.610013034082698"><ele>6.0</ele><time>2026-04-27T10:35:27.841Z</time></trkpt><trkpt lat="39.68452040745972" lon="8.60999431022847"><ele>6.0</ele><time>2026-04-27T10:35:28.841Z</time></trkpt><trkpt lat="39.684376043434945" lon="8.6099711248752"><ele>6.0</ele><time>2026-04-27T10:35:29.842Z</time></trkpt><trkpt lat="39.684245643627264" lon="8.609955489797045"><ele>6.0</ele><time>2026-04-27T10:35:30.842Z</time></trkpt><trkpt lat="39.684111192582655" lon="8.609939233551527"><ele>5.75</ele><time>2026-04-27T10:35:31.842Z</time></trkpt><trkpt lat="39.683980270203186" lon="8.609929881643978"><ele>5.5</ele><time>2026-04-27T10:35:32.843Z</time></trkpt><trkpt lat="39.68386074812005" lon="8.609916566409217"><ele>5.25</ele><time>2026-04-27T10:35:33.843Z</time></trkpt><trkpt lat="39.68375730598701" lon="8.609887538017107"><ele>5.0</ele><time>2026-04-27T10:35:34.843Z</time></trkpt><trkpt lat="39.68365892915785" lon="8.609874459674732"><ele>5.0</ele><time>2026-04-27T10:35:35.844Z</time></trkpt><trkpt lat="39.68357272977979" lon="8.609861264190842"><ele>5.0</ele><time>2026-04-27T10:35:36.844Z</time></trkpt><trkpt lat="39.68350458437096" lon="8.609837838156439"><ele>5.0</ele><time>2026-04-27T10:35:37.844Z</time></trkpt><trkpt lat="39.68342555804445" lon="8.609737340685006"><ele>5.0</ele><time>2026-04-27T10:35:39.844Z</time></trkpt><trkpt lat="39.68342512904648" lon="8.609627675477203"><ele>5.0</ele><time>2026-04-27T10:35:40.845Z</time></trkpt><trkpt lat="39.683434475711024" lon="8.609508481753714"><ele>5.0</ele><time>2026-04-27T10:35:41.845Z</time></trkpt><trkpt lat="39.6834459123195" lon="8.609384940188514"><ele>5.0</ele><time>2026-04-27T10:35:42.845Z</time></trkpt><trkpt lat="39.68344740861248" lon="8.609286683209012"><ele>5.0</ele><time>2026-04-27T10:35:43.845Z</time></trkpt><trkpt lat="39.68338683390768" lon="8.609164571895887"><ele>5.0</ele><time>2026-04-27T10:35:45.845Z</time></trkpt><trkpt lat="39.683280073893734" lon="8.609127992308117"><ele>5.0</ele><time>2026-04-27T10:35:47.846Z</time></trkpt><trkpt lat="39.68320565350838" lon="8.609109587818486"><ele>5.0</ele><time>2026-04-27T10:35:48.846Z</time></trkpt><trkpt lat="39.683128776557254" lon="8.60907919630716"><ele>5.0</ele><time>2026-04-27T10:35:49.846Z</time></trkpt><trkpt lat="39.683042682997595" lon="8.609077610357172"><ele>5.0</ele><time>2026-04-27T10:35:50.846Z</time></trkpt><trkpt lat="39.682952028342136" lon="8.609135355940673"><ele>5.0</ele><time>2026-04-27T10:35:51.846Z</time></trkpt><trkpt lat="39.682868291491694" lon="8.609199067685372"><ele>5.0</ele><time>2026-04-27T10:35:52.846Z</time></trkpt><trkpt lat="39.68278392492318" lon="8.609259158506529"><ele>5.0</ele><time>2026-04-27T10:35:53.846Z</time></trkpt><trkpt lat="39.682692395418684" lon="8.609323821100311"><ele>5.2</ele><time>2026-04-27T10:35:54.846Z</time></trkpt><trkpt lat="39.682598473570074" lon="8.60938636725727"><ele>5.4</ele><time>2026-04-27T10:35:55.846Z</time></trkpt><trkpt lat="39.68249710189191" lon="8.609456930683612"><ele>5.6</ele><time>2026-04-27T10:35:56.846Z</time></trkpt><trkpt lat="39.68240141922632" lon="8.609513501047775"><ele>5.8</ele><time>2026-04-27T10:35:57.846Z</time></trkpt><trkpt lat="39.68229238530728" lon="8.609528494829469"><ele>6.0</ele><time>2026-04-27T10:35:58.846Z</time></trkpt><trkpt lat="39.68218106636434" lon="8.6095387700189"><ele>6.0</ele><time>2026-04-27T10:35:59.847Z</time></trkpt><trkpt lat="39.68205343310959" lon="8.609544522068337"><ele>6.0</ele><time>2026-04-27T10:36:00.847Z</time></trkpt><trkpt lat="39.68191191321986" lon="8.609573669024849"><ele>6.0</ele><time>2026-04-27T10:36:01.847Z</time></trkpt><trkpt lat="39.681758467513006" lon="8.609576756244866"><ele>6.0</ele><time>2026-04-27T10:36:02.847Z</time></trkpt><trkpt lat="39.68160559204912" lon="8.60958575383443"><ele>6.333333333333334</ele><time>2026-04-27T10:36:03.847Z</time></trkpt><trkpt lat="39.681455065852205" lon="8.609620445266716"><ele>6.666666666666667</ele><time>2026-04-27T10:36:04.847Z</time></trkpt><trkpt lat="39.68128565670351" lon="8.609670245888092"><ele>7.0</ele><time>2026-04-27T10:36:05.847Z</time></trkpt><trkpt lat="39.68111691587756" lon="8.609712121168723"><ele>7.25</ele><time>2026-04-27T10:36:06.847Z</time></trkpt><trkpt lat="39.68098495629436" lon="8.609755934462449"><ele>7.5</ele><time>2026-04-27T10:36:07.847Z</time></trkpt><trkpt lat="39.680858043743626" lon="8.609800420885552"><ele>7.75</ele><time>2026-04-27T10:36:08.847Z</time></trkpt><trkpt lat="39.68072644678402" lon="8.609846719726654"><ele>8.0</ele><time>2026-04-27T10:36:09.847Z</time></trkpt><trkpt lat="39.68059918849668" lon="8.609888587599446"><ele>8.0</ele><time>2026-04-27T10:36:10.847Z</time></trkpt><trkpt lat="39.68046708387939" lon="8.609933822536915"><ele>8.0</ele><time>2026-04-27T10:36:11.847Z</time></trkpt><trkpt lat="39.68035590282707" lon="8.609989621952202"><ele>8.0</ele><time>2026-04-27T10:36:12.847Z</time></trkpt><trkpt lat="39.68025528485787" lon="8.610056579050786"><ele>8.0</ele><time>2026-04-27T10:36:13.847Z</time></trkpt><trkpt lat="39.68014969295505" lon="8.610121011708497"><ele>7.75</ele><time>2026-04-27T10:36:14.847Z</time></trkpt><trkpt lat="39.68003562066301" lon="8.610169487087065"><ele>7.5</ele><time>2026-04-27T10:36:15.847Z</time></trkpt><trkpt lat="39.67990766766873" lon="8.610205099811509"><ele>7.25</ele><time>2026-04-27T10:36:16.847Z</time></trkpt><trkpt lat="39.67978430476332" lon="8.610225665215577"><ele>7.0</ele><time>2026-04-27T10:36:17.847Z</time></trkpt><trkpt lat="39.679666899488694" lon="8.610239082843972"><ele>7.0</ele><time>2026-04-27T10:36:18.847Z</time></trkpt><trkpt lat="39.67954742314171" lon="8.61026468172048"><ele>7.0</ele><time>2026-04-27T10:36:19.847Z</time></trkpt><trkpt lat="39.679435961387384" lon="8.610298476827648"><ele>7.0</ele><time>2026-04-27T10:36:20.847Z</time></trkpt><trkpt lat="39.67933041663823" lon="8.610341204022742"><ele>7.0</ele><time>2026-04-27T10:36:21.847Z</time></trkpt><trkpt lat="39.679213490492636" lon="8.610394170487739"><ele>6.75</ele><time>2026-04-27T10:36:22.847Z</time></trkpt><trkpt lat="39.679093909124056" lon="8.610458099952359"><ele>6.5</ele><time>2026-04-27T10:36:23.847Z</time></trkpt><trkpt lat="39.67896148790119" lon="8.610509514103512"><ele>6.25</ele><time>2026-04-27T10:36:24.847Z</time></trkpt><trkpt lat="39.67884817348363" lon="8.610569391484997"><ele>6.0</ele><time>2026-04-27T10:36:25.847Z</time></trkpt><trkpt lat="39.67873144979988" lon="8.610604104331166"><ele>6.0</ele><time>2026-04-27T10:36:26.847Z</time></trkpt><trkpt lat="39.678621289599484" lon="8.610653136683483"><ele>6.0</ele><time>2026-04-27T10:36:27.847Z</time></trkpt><trkpt lat="39.67850768509155" lon="8.610689257298267"><ele>6.0</ele><time>2026-04-27T10:36:28.847Z</time></trkpt><trkpt lat="39.67840091877974" lon="8.610713522888274"><ele>6.0</ele><time>2026-04-27T10:36:29.847Z</time></trkpt><trkpt lat="39.67829180044698" lon="8.610727141740497"><ele>6.5</ele><time>2026-04-27T10:36:30.847Z</time></trkpt><trkpt lat="39.67818010617726" lon="8.610737121356209"><ele>7.0</ele><time>2026-04-27T10:36:31.847Z</time></trkpt><trkpt lat="39.67805760748632" lon="8.610750792020292"><ele>7.5</ele><time>2026-04-27T10:36:32.847Z</time></trkpt><trkpt lat="39.67794542281661" lon="8.610783303917009"><ele>8.0</ele><time>2026-04-27T10:36:33.847Z</time></trkpt><trkpt lat="39.677826863185544" lon="8.610817698635843"><ele>8.0</ele><time>2026-04-27T10:36:34.847Z</time></trkpt><trkpt lat="39.67770269911682" lon="8.6108530962467"><ele>8.0</ele><time>2026-04-27T10:36:35.847Z</time></trkpt><trkpt lat="39.67757591559802" lon="8.610893187500608"><ele>8.0</ele><time>2026-04-27T10:36:36.847Z</time></trkpt><trkpt lat="39.67746472269125" lon="8.610936372480888"><ele>8.0</ele><time>2026-04-27T10:36:37.847Z</time></trkpt><trkpt lat="39.67735732793383" lon="8.610986954276"><ele>8.0</ele><time>2026-04-27T10:36:38.847Z</time></trkpt><trkpt lat="39.67725085467381" lon="8.61103836006628"><ele>8.0</ele><time>2026-04-27T10:36:39.847Z</time></trkpt><trkpt lat="39.67714561561461" lon="8.611053028572229"><ele>8.0</ele><time>2026-04-27T10:36:40.847Z</time></trkpt><trkpt lat="39.67704281127773" lon="8.611102267497245"><ele>8.0</ele><time>2026-04-27T10:36:41.847Z</time></trkpt><trkpt lat="39.676945342585135" lon="8.611143502892677"><ele>8.0</ele><time>2026-04-27T10:36:42.847Z</time></trkpt><trkpt lat="39.67685137235227" lon="8.611200680023702"><ele>8.0</ele><time>2026-04-27T10:36:43.847Z</time></trkpt><trkpt lat="39.67674506263432" lon="8.611269348975869"><ele>8.0</ele><time>2026-04-27T10:36:44.847Z</time></trkpt><trkpt lat="39.67663480016771" lon="8.611344449358368"><ele>8.0</ele><time>2026-04-27T10:36:45.847Z</time></trkpt><trkpt lat="39.67651704941852" lon="8.611411553462592"><ele>8.0</ele><time>2026-04-27T10:36:46.847Z</time></trkpt><trkpt lat="39.67641166405875" lon="8.611476300603941"><ele>8.0</ele><time>2026-04-27T10:36:47.847Z</time></trkpt><trkpt lat="39.67631910339038" lon="8.611553893392902"><ele>8.0</ele><time>2026-04-27T10:36:48.847Z</time></trkpt><trkpt lat="39.67623898823803" lon="8.61162390363906"><ele>8.0</ele><time>2026-04-27T10:36:49.847Z</time></trkpt><trkpt lat="39.67616563409063" lon="8.611711825274895"><ele>8.0</ele><time>2026-04-27T10:36:50.847Z</time></trkpt><trkpt lat="39.67608098993888" lon="8.61180736532296"><ele>8.0</ele><time>2026-04-27T10:36:51.846Z</time></trkpt><trkpt lat="39.6759926159424" lon="8.611897706158109"><ele>8.0</ele><time>2026-04-27T10:36:52.846Z</time></trkpt><trkpt lat="39.6759039176592" lon="8.611981316543382"><ele>8.0</ele><time>2026-04-27T10:36:53.846Z</time></trkpt><trkpt lat="39.67581944633637" lon="8.612063061833014"><ele>8.0</ele><time>2026-04-27T10:36:54.846Z</time></trkpt><trkpt lat="39.67572691920692" lon="8.612157501964393"><ele>8.0</ele><time>2026-04-27T10:36:55.846Z</time></trkpt><trkpt lat="39.67563022879401" lon="8.612248961084308"><ele>8.0</ele><time>2026-04-27T10:36:56.846Z</time></trkpt><trkpt lat="39.675535016120115" lon="8.61234004051338"><ele>8.0</ele><time>2026-04-27T10:36:57.845Z</time></trkpt><trkpt lat="39.67543934095437" lon="8.612433707891784"><ele>8.0</ele><time>2026-04-27T10:36:58.846Z</time></trkpt><trkpt lat="39.675329240665775" lon="8.612524164967438"><ele>8.0</ele><time>2026-04-27T10:36:59.846Z</time></trkpt><trkpt lat="39.67523788416697" lon="8.612639498499997"><ele>8.0</ele><time>2026-04-27T10:37:00.846Z</time></trkpt><trkpt lat="39.67514617257491" lon="8.612738840814702"><ele>8.0</ele><time>2026-04-27T10:37:01.845Z</time></trkpt><trkpt lat="39.675052337731046" lon="8.612805370343025"><ele>8.0</ele><time>2026-04-27T10:37:02.845Z</time></trkpt><trkpt lat="39.67494933639469" lon="8.61285329402702"><ele>8.0</ele><time>2026-04-27T10:37:03.845Z</time></trkpt><trkpt lat="39.67484220821325" lon="8.612898787124703"><ele>8.0</ele><time>2026-04-27T10:37:04.846Z</time></trkpt><trkpt lat="39.67474437587059" lon="8.612947700405977"><ele>7.999999999999999</ele><time>2026-04-27T10:37:05.846Z</time></trkpt><trkpt lat="39.67466640748141" lon="8.613008266479115"><ele>8.0</ele><time>2026-04-27T10:37:06.846Z</time></trkpt><trkpt lat="39.67459294671043" lon="8.613079878784376"><ele>8.0</ele><time>2026-04-27T10:37:07.846Z</time></trkpt><trkpt lat="39.674520226319316" lon="8.613162489263335"><ele>8.0</ele><time>2026-04-27T10:37:08.846Z</time></trkpt><trkpt lat="39.67446399605068" lon="8.613246217287031"><ele>7.999999999999999</ele><time>2026-04-27T10:37:09.846Z</time></trkpt><trkpt lat="39.67441479565396" lon="8.613317886963408"><ele>8.0</ele><time>2026-04-27T10:37:10.846Z</time></trkpt><trkpt lat="39.67435450312883" lon="8.613387264900538"><ele>8.4</ele><time>2026-04-27T10:37:12.846Z</time></trkpt><trkpt lat="39.674326114648686" lon="8.613229183324819"><ele>8.8</ele><time>2026-04-27T10:37:18.846Z</time></trkpt><trkpt lat="39.67427615480253" lon="8.613072183386"><ele>9.2</ele><time>2026-04-27T10:37:20.846Z</time></trkpt><trkpt lat="39.67425115447001" lon="8.612977003049835"><ele>9.6</ele><time>2026-04-27T10:37:21.846Z</time></trkpt><trkpt lat="39.67419897261852" lon="8.612888144333407"><ele>10.0</ele><time>2026-04-27T10:37:22.846Z</time></trkpt><trkpt lat="39.67412544497484" lon="8.612782503155886"><ele>10.0</ele><time>2026-04-27T10:37:23.846Z</time></trkpt><trkpt lat="39.67403858449107" lon="8.61268599687652"><ele>10.0</ele><time>2026-04-27T10:37:24.846Z</time></trkpt><trkpt lat="39.673949844780346" lon="8.612598519658647"><ele>10.0</ele><time>2026-04-27T10:37:25.846Z</time></trkpt><trkpt lat="39.67385786902991" lon="8.612514613494627"><ele>10.0</ele><time>2026-04-27T10:37:26.846Z</time></trkpt><trkpt lat="39.6737517083331" lon="8.61241392710352"><ele>10.0</ele><time>2026-04-27T10:37:27.846Z</time></trkpt><trkpt lat="39.67364003476379" lon="8.612308985758018"><ele>10.0</ele><time>2026-04-27T10:37:28.846Z</time></trkpt><trkpt lat="39.67352008501418" lon="8.61220044609281"><ele>10.0</ele><time>2026-04-27T10:37:29.846Z</time></trkpt><trkpt lat="39.673403555499455" lon="8.612093696034393"><ele>10.0</ele><time>2026-04-27T10:37:30.846Z</time></trkpt><trkpt lat="39.673293460973184" lon="8.611966394955942"><ele>10.0</ele><time>2026-04-27T10:37:31.846Z</time></trkpt><trkpt lat="39.67316764379337" lon="8.611850949868666"><ele>10.0</ele><time>2026-04-27T10:37:32.846Z</time></trkpt><trkpt lat="39.673037809787765" lon="8.611735915983203"><ele>10.0</ele><time>2026-04-27T10:37:33.846Z</time></trkpt><trkpt lat="39.67289469995449" lon="8.611614537380595"><ele>10.333333333333334</ele><time>2026-04-27T10:37:34.846Z</time></trkpt><trkpt lat="39.67276982646817" lon="8.611491540255086"><ele>10.666666666666666</ele><time>2026-04-27T10:37:35.846Z</time></trkpt><trkpt lat="39.672650987012716" lon="8.611365907193838"><ele>11.0</ele><time>2026-04-27T10:37:36.846Z</time></trkpt><trkpt lat="39.67252704472727" lon="8.611240470784832"><ele>11.0</ele><time>2026-04-27T10:37:37.846Z</time></trkpt><trkpt lat="39.672393544932014" lon="8.611114298172602"><ele>11.0</ele><time>2026-04-27T10:37:38.846Z</time></trkpt><trkpt lat="39.672255656601536" lon="8.610988050947602"><ele>11.0</ele><time>2026-04-27T10:37:39.846Z</time></trkpt><trkpt lat="39.672118784235856" lon="8.610859143760187"><ele>11.0</ele><time>2026-04-27T10:37:40.846Z</time></trkpt><trkpt lat="39.67197879096991" lon="8.610726709766"><ele>11.0</ele><time>2026-04-27T10:37:41.846Z</time></trkpt><trkpt lat="39.67183674214586" lon="8.610588751384068"><ele>11.0</ele><time>2026-04-27T10:37:42.846Z</time></trkpt><trkpt lat="39.67169424468174" lon="8.610443199910343"><ele>12.0</ele><time>2026-04-27T10:37:43.846Z</time></trkpt><trkpt lat="39.67155210951677" lon="8.61029415184282"><ele>13.0</ele><time>2026-04-27T10:37:44.846Z</time></trkpt><trkpt lat="39.67142247049238" lon="8.61011766091773"><ele>14.0</ele><time>2026-04-27T10:37:45.846Z</time></trkpt><trkpt lat="39.67128132181088" lon="8.609951015565672"><ele>14.0</ele><time>2026-04-27T10:37:46.846Z</time></trkpt><trkpt lat="39.67114573312858" lon="8.60979001244382"><ele>14.0</ele><time>2026-04-27T10:37:47.846Z</time></trkpt><trkpt lat="39.671008547487304" lon="8.609626853609354"><ele>14.0</ele><time>2026-04-27T10:37:48.846Z</time></trkpt><trkpt lat="39.67087121590449" lon="8.60946405371991"><ele>15.333333333333334</ele><time>2026-04-27T10:37:49.846Z</time></trkpt><trkpt lat="39.67074740520742" lon="8.609319287987706"><ele>16.666666666666668</ele><time>2026-04-27T10:37:50.846Z</time></trkpt><trkpt lat="39.67063263830667" lon="8.609177792242244"><ele>18.0</ele><time>2026-04-27T10:37:51.846Z</time></trkpt><trkpt lat="39.67053925941359" lon="8.609049175968948"><ele>18.0</ele><time>2026-04-27T10:37:52.846Z</time></trkpt><trkpt lat="39.670459552949325" lon="8.608917595650128"><ele>18.0</ele><time>2026-04-27T10:37:53.846Z</time></trkpt><trkpt lat="39.670392792641124" lon="8.608766249189033"><ele>18.0</ele><time>2026-04-27T10:37:54.846Z</time></trkpt><trkpt lat="39.67037849112255" lon="8.608614052697405"><ele>18.0</ele><time>2026-04-27T10:37:55.846Z</time></trkpt><trkpt lat="39.67037441123957" lon="8.608504247266858"><ele>18.0</ele><time>2026-04-27T10:37:56.846Z</time></trkpt><trkpt lat="39.67038602804672" lon="8.608373849423609"><ele>18.0</ele><time>2026-04-27T10:37:57.846Z</time></trkpt><trkpt lat="39.670397011744384" lon="8.60826034057087"><ele>18.0</ele><time>2026-04-27T10:37:58.846Z</time></trkpt><trkpt lat="39.67040919886696" lon="8.608129378117612"><ele>18.0</ele><time>2026-04-27T10:38:00.846Z</time></trkpt><trkpt lat="39.67041718425299" lon="8.60804105694072"><ele>18.0</ele><time>2026-04-27T10:38:02.846Z</time></trkpt><trkpt lat="39.67035379927182" lon="8.60809966065804"><ele>18.0</ele><time>2026-04-27T10:38:13.846Z</time></trkpt><trkpt lat="39.67034878584439" lon="8.608235513151971"><ele>18.0</ele><time>2026-04-27T10:38:14.846Z</time></trkpt><trkpt lat="39.670329000872336" lon="8.608420170226916"><ele>18.0</ele><time>2026-04-27T10:38:15.846Z</time></trkpt><trkpt lat="39.6703766939752" lon="8.608333945296692"><ele>18.0</ele><time>2026-04-27T10:38:16.846Z</time></trkpt><trkpt lat="39.6703451861435" lon="8.608448843918522"><ele>18.0</ele><time>2026-04-27T10:38:17.846Z</time></trkpt><trkpt lat="39.670359863703084" lon="8.608580129676964"><ele>18.0</ele><time>2026-04-27T10:38:18.846Z</time></trkpt><trkpt lat="39.67037017390245" lon="8.608698679167462"><ele>18.0</ele><time>2026-04-27T10:38:19.846Z</time></trkpt><trkpt lat="39.67039420738843" lon="8.608790243664332"><ele>18.0</ele><time>2026-04-27T10:38:20.846Z</time></trkpt><trkpt lat="39.67042220050763" lon="8.608882036229978"><ele>18.0</ele><time>2026-04-27T10:38:22.846Z</time></trkpt><trkpt lat="39.67035146082697" lon="8.608845049552418"><ele>18.0</ele><time>2026-04-27T10:38:25.846Z</time></trkpt><trkpt lat="39.670254362588736" lon="8.608793705437957"><ele>18.0</ele><time>2026-04-27T10:38:27.846Z</time></trkpt><trkpt lat="39.670181899817216" lon="8.608748822382418"><ele>18.0</ele><time>2026-04-27T10:38:28.846Z</time></trkpt><trkpt lat="39.67010415319865" lon="8.608696492366642"><ele>17.8</ele><time>2026-04-27T10:38:29.846Z</time></trkpt><trkpt lat="39.67002225569625" lon="8.608635195687047"><ele>17.6</ele><time>2026-04-27T10:38:30.846Z</time></trkpt><trkpt lat="39.669933876385066" lon="8.608565526195456"><ele>17.4</ele><time>2026-04-27T10:38:31.846Z</time></trkpt><trkpt lat="39.66984800950883" lon="8.608491383773185"><ele>17.2</ele><time>2026-04-27T10:38:32.846Z</time></trkpt><trkpt lat="39.66976505363559" lon="8.608410402115947"><ele>17.0</ele><time>2026-04-27T10:38:33.846Z</time></trkpt><trkpt lat="39.66967967963298" lon="8.608329662060399"><ele>17.0</ele><time>2026-04-27T10:38:34.846Z</time></trkpt><trkpt lat="39.66962106166822" lon="8.608224022936021"><ele>17.0</ele><time>2026-04-27T10:38:35.846Z</time></trkpt><trkpt lat="39.66954429578683" lon="8.608119804872459"><ele>17.0</ele><time>2026-04-27T10:38:36.846Z</time></trkpt><trkpt lat="39.669463259007" lon="8.608016725557599"><ele>17.0</ele><time>2026-04-27T10:38:37.846Z</time></trkpt><trkpt lat="39.669391362723054" lon="8.607929839644685"><ele>17.0</ele><time>2026-04-27T10:38:38.846Z</time></trkpt><trkpt lat="39.66928923121113" lon="8.607814420729326"><ele>17.2</ele><time>2026-04-27T10:38:39.846Z</time></trkpt><trkpt lat="39.66922219662566" lon="8.607731757986391"><ele>17.4</ele><time>2026-04-27T10:38:40.846Z</time></trkpt><trkpt lat="39.66915518406841" lon="8.60765394007816"><ele>17.6</ele><time>2026-04-27T10:38:41.846Z</time></trkpt><trkpt lat="39.66906526041673" lon="8.607577889316325"><ele>17.8</ele><time>2026-04-27T10:38:42.846Z</time></trkpt><trkpt lat="39.66897880085773" lon="8.607509580356767"><ele>18.0</ele><time>2026-04-27T10:38:43.846Z</time></trkpt><trkpt lat="39.66888132365416" lon="8.607446855565426"><ele>18.0</ele><time>2026-04-27T10:38:44.846Z</time></trkpt><trkpt lat="39.66877985053929" lon="8.607386827093832"><ele>18.0</ele><time>2026-04-27T10:38:45.846Z</time></trkpt><trkpt lat="39.66868539662427" lon="8.607314440125776"><ele>18.0</ele><time>2026-04-27T10:38:46.846Z</time></trkpt><trkpt lat="39.66859050655047" lon="8.607226585757806"><ele>18.0</ele><time>2026-04-27T10:38:47.846Z</time></trkpt><trkpt lat="39.66849500414105" lon="8.607134261962463"><ele>18.25</ele><time>2026-04-27T10:38:48.846Z</time></trkpt><trkpt lat="39.66840782825627" lon="8.607030189083314"><ele>18.5</ele><time>2026-04-27T10:38:49.846Z</time></trkpt><trkpt lat="39.66831984700318" lon="8.606922468215988"><ele>18.75</ele><time>2026-04-27T10:38:50.846Z</time></trkpt><trkpt lat="39.66824349753683" lon="8.606795626261993"><ele>19.0</ele><time>2026-04-27T10:38:51.846Z</time></trkpt><trkpt lat="39.668163217713435" lon="8.606695146944645"><ele>19.2</ele><time>2026-04-27T10:38:52.846Z</time></trkpt><trkpt lat="39.66808953281188" lon="8.606591378245101"><ele>19.4</ele><time>2026-04-27T10:38:53.846Z</time></trkpt><trkpt lat="39.66801077575694" lon="8.606490885128453"><ele>19.6</ele><time>2026-04-27T10:38:54.846Z</time></trkpt><trkpt lat="39.66792425068903" lon="8.606397595156324"><ele>19.8</ele><time>2026-04-27T10:38:55.846Z</time></trkpt><trkpt lat="39.66783110163601" lon="8.60631562230058"><ele>20.0</ele><time>2026-04-27T10:38:56.846Z</time></trkpt><trkpt lat="39.66772832213609" lon="8.60624738210901"><ele>20.0</ele><time>2026-04-27T10:38:57.845Z</time></trkpt><trkpt lat="39.66762029121265" lon="8.606194608403055"><ele>20.0</ele><time>2026-04-27T10:38:58.844Z</time></trkpt><trkpt lat="39.6675144443449" lon="8.606144148439043"><ele>20.0</ele><time>2026-04-27T10:38:59.844Z</time></trkpt><trkpt lat="39.667424078353214" lon="8.606093056832304"><ele>20.0</ele><time>2026-04-27T10:39:00.844Z</time></trkpt><trkpt lat="39.66734155109066" lon="8.606026661851613"><ele>20.0</ele><time>2026-04-27T10:39:01.844Z</time></trkpt><trkpt lat="39.667289260622866" lon="8.60593857281568"><ele>20.0</ele><time>2026-04-27T10:39:02.844Z</time></trkpt><trkpt lat="39.66722995658882" lon="8.605846487023515"><ele>20.0</ele><time>2026-04-27T10:39:03.844Z</time></trkpt><trkpt lat="39.66716626664645" lon="8.60573472055637"><ele>20.0</ele><time>2026-04-27T10:39:04.844Z</time></trkpt><trkpt lat="39.667103001746604" lon="8.605629482176678"><ele>20.0</ele><time>2026-04-27T10:39:05.844Z</time></trkpt><trkpt lat="39.66704138929606" lon="8.60551806880095"><ele>20.0</ele><time>2026-04-27T10:39:06.845Z</time></trkpt><trkpt lat="39.666974970030196" lon="8.605396998823277"><ele>20.75</ele><time>2026-04-27T10:39:07.844Z</time></trkpt><trkpt lat="39.66691723643701" lon="8.605262345838009"><ele>21.5</ele><time>2026-04-27T10:39:08.844Z</time></trkpt><trkpt lat="39.66685157925263" lon="8.605134288495695"><ele>22.25</ele><time>2026-04-27T10:39:09.844Z</time></trkpt><trkpt lat="39.66678032307354" lon="8.60501215978096"><ele>23.0</ele><time>2026-04-27T10:39:10.844Z</time></trkpt><trkpt lat="39.66671842059052" lon="8.604899722229698"><ele>23.0</ele><time>2026-04-27T10:39:11.844Z</time></trkpt><trkpt lat="39.66665924460702" lon="8.604813356262044"><ele>23.0</ele><time>2026-04-27T10:39:12.844Z</time></trkpt><trkpt lat="39.66659028208778" lon="8.604734600145548"><ele>23.0</ele><time>2026-04-27T10:39:13.844Z</time></trkpt><trkpt lat="39.66651013636817" lon="8.604656575579899"><ele>23.0</ele><time>2026-04-27T10:39:14.844Z</time></trkpt><trkpt lat="39.66643326630612" lon="8.60458625664861"><ele>23.0</ele><time>2026-04-27T10:39:15.844Z</time></trkpt><trkpt lat="39.666350114164615" lon="8.604524646468404"><ele>22.799999999999997</ele><time>2026-04-27T10:39:16.844Z</time></trkpt><trkpt lat="39.666258738446736" lon="8.604482212839532"><ele>22.6</ele><time>2026-04-27T10:39:17.844Z</time></trkpt><trkpt lat="39.666146240444476" lon="8.60445546821681"><ele>22.4</ele><time>2026-04-27T10:39:18.844Z</time></trkpt><trkpt lat="39.666036717230966" lon="8.604429453784437"><ele>22.200000000000003</ele><time>2026-04-27T10:39:19.844Z</time></trkpt><trkpt lat="39.66592765720355" lon="8.604388341466606"><ele>22.0</ele><time>2026-04-27T10:39:20.844Z</time></trkpt><trkpt lat="39.66584185704206" lon="8.60430281835151"><ele>22.5</ele><time>2026-04-27T10:39:21.844Z</time></trkpt><trkpt lat="39.66574436246758" lon="8.60424752985102"><ele>23.0</ele><time>2026-04-27T10:39:22.844Z</time></trkpt><trkpt lat="39.66562691232064" lon="8.604211599895367"><ele>23.5</ele><time>2026-04-27T10:39:23.844Z</time></trkpt><trkpt lat="39.665529592506694" lon="8.604140355584212"><ele>24.0</ele><time>2026-04-27T10:39:24.844Z</time></trkpt><trkpt lat="39.665425470074126" lon="8.60408618069391"><ele>24.0</ele><time>2026-04-27T10:39:25.844Z</time></trkpt><trkpt lat="39.66531307595812" lon="8.604039470332857"><ele>24.0</ele><time>2026-04-27T10:39:26.844Z</time></trkpt><trkpt lat="39.66521786537813" lon="8.603948532038338"><ele>24.0</ele><time>2026-04-27T10:39:27.844Z</time></trkpt><trkpt lat="39.66510942858926" lon="8.603874220146887"><ele>24.0</ele><time>2026-04-27T10:39:28.844Z</time></trkpt><trkpt lat="39.66499772154753" lon="8.603799333448624"><ele>24.0</ele><time>2026-04-27T10:39:29.844Z</time></trkpt><trkpt lat="39.664892813048816" lon="8.603729098540118"><ele>24.0</ele><time>2026-04-27T10:39:30.844Z</time></trkpt><trkpt lat="39.66479006581435" lon="8.603658380553359"><ele>24.0</ele><time>2026-04-27T10:39:31.844Z</time></trkpt><trkpt lat="39.664700724118205" lon="8.603592368223405"><ele>24.0</ele><time>2026-04-27T10:39:32.844Z</time></trkpt><trkpt lat="39.664610183225605" lon="8.603514151737574"><ele>24.0</ele><time>2026-04-27T10:39:33.844Z</time></trkpt><trkpt lat="39.66452589815836" lon="8.60342897545837"><ele>24.25</ele><time>2026-04-27T10:39:34.844Z</time></trkpt><trkpt lat="39.66444216415292" lon="8.603331689231172"><ele>24.5</ele><time>2026-04-27T10:39:35.844Z</time></trkpt><trkpt lat="39.664353753040174" lon="8.603230409535527"><ele>24.75</ele><time>2026-04-27T10:39:36.844Z</time></trkpt><trkpt lat="39.66426127859352" lon="8.603129012218753"><ele>25.0</ele><time>2026-04-27T10:39:37.844Z</time></trkpt><trkpt lat="39.664162158482064" lon="8.603035127607216"><ele>25.0</ele><time>2026-04-27T10:39:38.844Z</time></trkpt><trkpt lat="39.664052031143406" lon="8.602950732774248"><ele>25.0</ele><time>2026-04-27T10:39:39.844Z</time></trkpt><trkpt lat="39.66394021190575" lon="8.602870268211777"><ele>25.0</ele><time>2026-04-27T10:39:40.844Z</time></trkpt><trkpt lat="39.663821345969446" lon="8.602782093249767"><ele>25.0</ele><time>2026-04-27T10:39:41.844Z</time></trkpt><trkpt lat="39.663689032432025" lon="8.602694619970327"><ele>25.0</ele><time>2026-04-27T10:39:42.844Z</time></trkpt><trkpt lat="39.663556535092155" lon="8.602610031550288"><ele>25.0</ele><time>2026-04-27T10:39:43.844Z</time></trkpt><trkpt lat="39.663433120794664" lon="8.602526475303279"><ele>25.0</ele><time>2026-04-27T10:39:44.844Z</time></trkpt><trkpt lat="39.66331393609588" lon="8.602429101479276"><ele>25.0</ele><time>2026-04-27T10:39:45.844Z</time></trkpt><trkpt lat="39.663184781144516" lon="8.602358980662807"><ele>25.0</ele><time>2026-04-27T10:39:46.844Z</time></trkpt><trkpt lat="39.66304992884766" lon="8.60228443892707"><ele>25.0</ele><time>2026-04-27T10:39:47.844Z</time></trkpt><trkpt lat="39.66291399166487" lon="8.602204762273864"><ele>25.0</ele><time>2026-04-27T10:39:48.844Z</time></trkpt><trkpt lat="39.66278760684533" lon="8.60211870507976"><ele>25.0</ele><time>2026-04-27T10:39:49.844Z</time></trkpt><trkpt lat="39.66266495578029" lon="8.60204410628828"><ele>25.5</ele><time>2026-04-27T10:39:50.844Z</time></trkpt><trkpt lat="39.66255027227375" lon="8.601966746025337"><ele>26.0</ele><time>2026-04-27T10:39:51.844Z</time></trkpt><trkpt lat="39.662449520504396" lon="8.601884932717804"><ele>26.5</ele><time>2026-04-27T10:39:52.844Z</time></trkpt><trkpt lat="39.66234366297609" lon="8.601797215386377"><ele>27.0</ele><time>2026-04-27T10:39:53.844Z</time></trkpt><trkpt lat="39.66223905191797" lon="8.601702015690382"><ele>27.0</ele><time>2026-04-27T10:39:54.844Z</time></trkpt><trkpt lat="39.66212949869681" lon="8.601597357539807"><ele>27.000000000000004</ele><time>2026-04-27T10:39:55.844Z</time></trkpt><trkpt lat="39.662021389756056" lon="8.601520906569128"><ele>27.000000000000004</ele><time>2026-04-27T10:39:56.844Z</time></trkpt><trkpt lat="39.661926269302036" lon="8.601470955912458"><ele>27.0</ele><time>2026-04-27T10:39:57.844Z</time></trkpt><trkpt lat="39.66184991122977" lon="8.601439405947374"><ele>27.0</ele><time>2026-04-27T10:39:58.844Z</time></trkpt><trkpt lat="39.66175906837808" lon="8.601436912210406"><ele>27.0</ele><time>2026-04-27T10:40:00.844Z</time></trkpt><trkpt lat="39.66168481511921" lon="8.601423352318404"><ele>27.000000000000004</ele><time>2026-04-27T10:40:05.844Z</time></trkpt><trkpt lat="39.661819518881025" lon="8.60153725172973"><ele>27.000000000000004</ele><time>2026-04-27T10:40:14.844Z</time></trkpt><trkpt lat="39.66187041126201" lon="8.6014643305432"><ele>27.0</ele><time>2026-04-27T10:40:16.844Z</time></trkpt><trkpt lat="39.661931023452645" lon="8.60137595716643"><ele>27.0</ele><time>2026-04-27T10:40:18.844Z</time></trkpt><trkpt lat="39.661983901950165" lon="8.601278339398057"><ele>27.0</ele><time>2026-04-27T10:40:19.844Z</time></trkpt><trkpt lat="39.6620448612456" lon="8.601170971257302"><ele>27.000000000000004</ele><time>2026-04-27T10:40:20.844Z</time></trkpt><trkpt lat="39.66212119473521" lon="8.601060152567293"><ele>27.000000000000004</ele><time>2026-04-27T10:40:21.844Z</time></trkpt><trkpt lat="39.66219230730474" lon="8.600945603218353"><ele>27.0</ele><time>2026-04-27T10:40:22.844Z</time></trkpt><trkpt lat="39.662243206753736" lon="8.600826456080352"><ele>27.0</ele><time>2026-04-27T10:40:23.844Z</time></trkpt><trkpt lat="39.66230138761659" lon="8.600734706087733"><ele>26.666666666666668</ele><time>2026-04-27T10:40:24.844Z</time></trkpt><trkpt lat="39.66234140786467" lon="8.600649377621426"><ele>26.333333333333336</ele><time>2026-04-27T10:40:25.844Z</time></trkpt><trkpt lat="39.66237710727904" lon="8.600555735132561"><ele>26.0</ele><time>2026-04-27T10:40:26.844Z</time></trkpt><trkpt lat="39.662402517159315" lon="8.60046775712641"><ele>25.666666666666668</ele><time>2026-04-27T10:40:27.844Z</time></trkpt><trkpt lat="39.66241456424127" lon="8.600352674076753"><ele>25.333333333333336</ele><time>2026-04-27T10:40:29.844Z</time></trkpt><trkpt lat="39.6623555197121" lon="8.60021513376518"><ele>25.0</ele><time>2026-04-27T10:40:31.844Z</time></trkpt><trkpt lat="39.66228452476118" lon="8.600149541815309"><ele>25.0</ele><time>2026-04-27T10:40:32.844Z</time></trkpt><trkpt lat="39.66220202315779" lon="8.600078612175258"><ele>25.0</ele><time>2026-04-27T10:40:33.844Z</time></trkpt><trkpt lat="39.66212789020417" lon="8.60001459505471"><ele>25.0</ele><time>2026-04-27T10:40:34.844Z</time></trkpt><trkpt lat="39.6620433261973" lon="8.599937485290383"><ele>25.0</ele><time>2026-04-27T10:40:35.844Z</time></trkpt><trkpt lat="39.66197304638091" lon="8.599864593034278"><ele>25.0</ele><time>2026-04-27T10:40:36.844Z</time></trkpt><trkpt lat="39.661900659901846" lon="8.599773529025054"><ele>25.4</ele><time>2026-04-27T10:40:37.844Z</time></trkpt><trkpt lat="39.66184155737942" lon="8.599692111231564"><ele>25.8</ele><time>2026-04-27T10:40:38.844Z</time></trkpt><trkpt lat="39.66178243065013" lon="8.599603167803657"><ele>26.200000000000003</ele><time>2026-04-27T10:40:39.844Z</time></trkpt><trkpt lat="39.661719193552095" lon="8.59950173507481"><ele>26.6</ele><time>2026-04-27T10:40:40.844Z</time></trkpt><trkpt lat="39.661661301276425" lon="8.599403881168469"><ele>27.0</ele><time>2026-04-27T10:40:41.844Z</time></trkpt><trkpt lat="39.661601388133924" lon="8.599295070055867"><ele>27.200000000000003</ele><time>2026-04-27T10:40:42.844Z</time></trkpt><trkpt lat="39.66154428944994" lon="8.599185995932306"><ele>27.400000000000002</ele><time>2026-04-27T10:40:43.844Z</time></trkpt><trkpt lat="39.661486197890376" lon="8.599075025325398"><ele>27.599999999999998</ele><time>2026-04-27T10:40:44.844Z</time></trkpt><trkpt lat="39.66143143783597" lon="8.59896143361983"><ele>27.799999999999997</ele><time>2026-04-27T10:40:45.844Z</time></trkpt><trkpt lat="39.661374900157405" lon="8.598843547035367"><ele>28.0</ele><time>2026-04-27T10:40:46.844Z</time></trkpt><trkpt lat="39.66132073429564" lon="8.598724135555868"><ele>28.4</ele><time>2026-04-27T10:40:47.844Z</time></trkpt><trkpt lat="39.66127078014413" lon="8.5986077630097"><ele>28.799999999999997</ele><time>2026-04-27T10:40:48.844Z</time></trkpt><trkpt lat="39.66121080264169" lon="8.598501170128541"><ele>29.2</ele><time>2026-04-27T10:40:49.844Z</time></trkpt><trkpt lat="39.661152759699" lon="8.598367950351523"><ele>29.6</ele><time>2026-04-27T10:40:50.844Z</time></trkpt><trkpt lat="39.66109923245807" lon="8.598235342163912"><ele>30.0</ele><time>2026-04-27T10:40:51.844Z</time></trkpt><trkpt lat="39.66103746450787" lon="8.598115214877549"><ele>30.0</ele><time>2026-04-27T10:40:52.844Z</time></trkpt><trkpt lat="39.6609694644649" lon="8.597983685729659"><ele>30.0</ele><time>2026-04-27T10:40:53.844Z</time></trkpt><trkpt lat="39.66088772147853" lon="8.59786586084345"><ele>30.0</ele><time>2026-04-27T10:40:54.844Z</time></trkpt><trkpt lat="39.660821167133335" lon="8.597737987135796"><ele>30.0</ele><time>2026-04-27T10:40:55.844Z</time></trkpt><trkpt lat="39.660759883369174" lon="8.597617387108013"><ele>30.5</ele><time>2026-04-27T10:40:56.844Z</time></trkpt><trkpt lat="39.660699068778506" lon="8.597502865701447"><ele>31.0</ele><time>2026-04-27T10:40:57.844Z</time></trkpt><trkpt lat="39.66063153409712" lon="8.597381074296377"><ele>31.5</ele><time>2026-04-27T10:40:58.844Z</time></trkpt><trkpt lat="39.66055756946972" lon="8.597253406873001"><ele>32.0</ele><time>2026-04-27T10:40:59.844Z</time></trkpt><trkpt lat="39.660485882718746" lon="8.597126715361886"><ele>32.0</ele><time>2026-04-27T10:41:00.844Z</time></trkpt><trkpt lat="39.660431930645935" lon="8.597003863981328"><ele>32.0</ele><time>2026-04-27T10:41:01.844Z</time></trkpt><trkpt lat="39.6603743687432" lon="8.596885567850547"><ele>32.0</ele><time>2026-04-27T10:41:02.844Z</time></trkpt><trkpt lat="39.66031799342792" lon="8.596743999998678"><ele>32.0</ele><time>2026-04-27T10:41:03.843Z</time></trkpt><trkpt lat="39.66025754362214" lon="8.596580498342"><ele>32.25</ele><time>2026-04-27T10:41:04.842Z</time></trkpt><trkpt lat="39.660200386348365" lon="8.596429244011539"><ele>32.5</ele><time>2026-04-27T10:41:05.842Z</time></trkpt><trkpt lat="39.66014369524601" lon="8.596272161620332"><ele>32.75</ele><time>2026-04-27T10:41:06.843Z</time></trkpt><trkpt lat="39.66008640201619" lon="8.596117002531267"><ele>33.0</ele><time>2026-04-27T10:41:07.843Z</time></trkpt><trkpt lat="39.660031011233926" lon="8.595955157722184"><ele>33.25</ele><time>2026-04-27T10:41:08.843Z</time></trkpt><trkpt lat="39.65997406828406" lon="8.595798575527471"><ele>33.5</ele><time>2026-04-27T10:41:09.842Z</time></trkpt><trkpt lat="39.65991312703902" lon="8.595639172403876"><ele>33.75</ele><time>2026-04-27T10:41:10.842Z</time></trkpt><trkpt lat="39.65985400016891" lon="8.595479048074951"><ele>34.0</ele><time>2026-04-27T10:41:11.842Z</time></trkpt><trkpt lat="39.65979377073336" lon="8.595328742163607"><ele>34.5</ele><time>2026-04-27T10:41:12.842Z</time></trkpt><trkpt lat="39.65973329556087" lon="8.595179220231149"><ele>35.0</ele><time>2026-04-27T10:41:13.842Z</time></trkpt><trkpt lat="39.65967685110904" lon="8.595022578885542"><ele>35.5</ele><time>2026-04-27T10:41:14.842Z</time></trkpt><trkpt lat="39.65961861481758" lon="8.594866518004464"><ele>36.0</ele><time>2026-04-27T10:41:15.842Z</time></trkpt><trkpt lat="39.65955819798747" lon="8.594713072896063"><ele>36.0</ele><time>2026-04-27T10:41:16.842Z</time></trkpt><trkpt lat="39.65949742045658" lon="8.594560652968743"><ele>36.0</ele><time>2026-04-27T10:41:17.842Z</time></trkpt><trkpt lat="39.659437211990124" lon="8.59439963458046"><ele>36.0</ele><time>2026-04-27T10:41:18.842Z</time></trkpt><trkpt lat="39.659382522686045" lon="8.594244773517792"><ele>36.0</ele><time>2026-04-27T10:41:19.842Z</time></trkpt><trkpt lat="39.659329525516455" lon="8.594079388222342"><ele>36.5</ele><time>2026-04-27T10:41:20.842Z</time></trkpt><trkpt lat="39.659278980030805" lon="8.593919477083308"><ele>37.0</ele><time>2026-04-27T10:41:21.842Z</time></trkpt><trkpt lat="39.65922031767498" lon="8.59376164138803"><ele>37.5</ele><time>2026-04-27T10:41:22.842Z</time></trkpt><trkpt lat="39.65918824005191" lon="8.5936246716323"><ele>38.0</ele><time>2026-04-27T10:41:23.842Z</time></trkpt><trkpt lat="39.65916119000854" lon="8.593519261540024"><ele>38.199999999999996</ele><time>2026-04-27T10:41:24.842Z</time></trkpt><trkpt lat="39.65913273062218" lon="8.593388109138822"><ele>38.4</ele><time>2026-04-27T10:41:26.842Z</time></trkpt><trkpt lat="39.65909889476992" lon="8.593256277074032"><ele>38.599999999999994</ele><time>2026-04-27T10:41:27.842Z</time></trkpt><trkpt lat="39.659062358351186" lon="8.593136616749955"><ele>38.8</ele><time>2026-04-27T10:41:28.842Z</time></trkpt><trkpt lat="39.659000350193224" lon="8.592999803087238"><ele>39.0</ele><time>2026-04-27T10:41:29.842Z</time></trkpt><trkpt lat="39.6589467724992" lon="8.59280298196202"><ele>39.333333333333336</ele><time>2026-04-27T10:41:30.842Z</time></trkpt><trkpt lat="39.6588902351291" lon="8.592595197000287"><ele>39.66666666666667</ele><time>2026-04-27T10:41:31.842Z</time></trkpt><trkpt lat="39.65883232240298" lon="8.592390020748738"><ele>40.0</ele><time>2026-04-27T10:41:32.842Z</time></trkpt><trkpt lat="39.658768133990115" lon="8.592185940752016"><ele>40.333333333333336</ele><time>2026-04-27T10:41:33.842Z</time></trkpt><trkpt lat="39.658703802326556" lon="8.59197857529146"><ele>40.666666666666664</ele><time>2026-04-27T10:41:34.842Z</time></trkpt><trkpt lat="39.658625487791745" lon="8.591774046707403"><ele>41.0</ele><time>2026-04-27T10:41:36.842Z</time></trkpt><trkpt lat="39.6585643739901" lon="8.591571038670224"><ele>41.0</ele><time>2026-04-27T10:41:37.842Z</time></trkpt><trkpt lat="39.658501398023475" lon="8.591371082226834"><ele>41.0</ele><time>2026-04-27T10:41:38.842Z</time></trkpt><trkpt lat="39.658433445969195" lon="8.591167128419704"><ele>41.0</ele><time>2026-04-27T10:41:39.842Z</time></trkpt><trkpt lat="39.658366662606824" lon="8.59096122895208"><ele>41.0</ele><time>2026-04-27T10:41:40.842Z</time></trkpt><trkpt lat="39.658302787818634" lon="8.590754303013764"><ele>41.0</ele><time>2026-04-27T10:41:41.842Z</time></trkpt><trkpt lat="39.65824004312174" lon="8.590541050059032"><ele>41.0</ele><time>2026-04-27T10:41:42.842Z</time></trkpt><trkpt lat="39.65817996354984" lon="8.59031831758417"><ele>41.33333333333333</ele><time>2026-04-27T10:41:43.842Z</time></trkpt><trkpt lat="39.65812409837604" lon="8.590095514601785"><ele>41.666666666666664</ele><time>2026-04-27T10:41:44.842Z</time></trkpt><trkpt lat="39.65807149008798" lon="8.589864915391644"><ele>42.0</ele><time>2026-04-27T10:41:45.842Z</time></trkpt><trkpt lat="39.65801858647492" lon="8.589637281994616"><ele>42.333333333333336</ele><time>2026-04-27T10:41:46.842Z</time></trkpt><trkpt lat="39.657961816613145" lon="8.589406548545096"><ele>42.66666666666667</ele><time>2026-04-27T10:41:47.842Z</time></trkpt><trkpt lat="39.65790938360931" lon="8.589179447368513"><ele>43.0</ele><time>2026-04-27T10:41:48.842Z</time></trkpt><trkpt lat="39.65785108368429" lon="8.588946214696607"><ele>43.0</ele><time>2026-04-27T10:41:49.842Z</time></trkpt><trkpt lat="39.65779331842184" lon="8.588715060351385"><ele>43.0</ele><time>2026-04-27T10:41:50.842Z</time></trkpt><trkpt lat="39.65773910396207" lon="8.588487441989626"><ele>43.0</ele><time>2026-04-27T10:41:51.842Z</time></trkpt><trkpt lat="39.65768439988193" lon="8.58826652271483"><ele>43.0</ele><time>2026-04-27T10:41:52.842Z</time></trkpt><trkpt lat="39.65762624223301" lon="8.58804616251642"><ele>43.0</ele><time>2026-04-27T10:41:53.842Z</time></trkpt><trkpt lat="39.65756468985678" lon="8.58783081342786"><ele>43.0</ele><time>2026-04-27T10:41:54.842Z</time></trkpt><trkpt lat="39.65749289515677" lon="8.587617616284044"><ele>43.0</ele><time>2026-04-27T10:41:55.842Z</time></trkpt><trkpt lat="39.65741629370472" lon="8.587404800362787"><ele>43.0</ele><time>2026-04-27T10:41:56.842Z</time></trkpt><trkpt lat="39.65734162592283" lon="8.587193502175056"><ele>43.0</ele><time>2026-04-27T10:41:57.842Z</time></trkpt><trkpt lat="39.65726255285012" lon="8.586992034991882"><ele>43.333333333333336</ele><time>2026-04-27T10:41:58.842Z</time></trkpt><trkpt lat="39.657196135088704" lon="8.586799689039891"><ele>43.666666666666664</ele><time>2026-04-27T10:41:59.842Z</time></trkpt><trkpt lat="39.65714102146681" lon="8.586616462177059"><ele>44.0</ele><time>2026-04-27T10:42:00.842Z</time></trkpt><trkpt lat="39.65709872130161" lon="8.586425021700077"><ele>44.0</ele><time>2026-04-27T10:42:01.842Z</time></trkpt><trkpt lat="39.65710172002267" lon="8.586231889492808"><ele>44.0</ele><time>2026-04-27T10:42:02.842Z</time></trkpt><trkpt lat="39.657080277341834" lon="8.58603149623702"><ele>44.0</ele><time>2026-04-27T10:42:03.842Z</time></trkpt><trkpt lat="39.65708460654068" lon="8.585826366068643"><ele>44.666666666666664</ele><time>2026-04-27T10:42:04.842Z</time></trkpt><trkpt lat="39.65708525480877" lon="8.585606428506841"><ele>45.333333333333336</ele><time>2026-04-27T10:42:05.842Z</time></trkpt><trkpt lat="39.65708147827833" lon="8.58538732632073"><ele>46.0</ele><time>2026-04-27T10:42:06.842Z</time></trkpt><trkpt lat="39.65706987450303" lon="8.585169826710612"><ele>46.0</ele><time>2026-04-27T10:42:07.842Z</time></trkpt><trkpt lat="39.65705716323509" lon="8.584955296661958"><ele>46.0</ele><time>2026-04-27T10:42:08.842Z</time></trkpt><trkpt lat="39.657051388850796" lon="8.584741765559745"><ele>46.0</ele><time>2026-04-27T10:42:09.842Z</time></trkpt><trkpt lat="39.65704052720862" lon="8.584565925229933"><ele>46.199999999999996</ele><time>2026-04-27T10:42:10.842Z</time></trkpt><trkpt lat="39.65702279040222" lon="8.584419165366308"><ele>46.4</ele><time>2026-04-27T10:42:11.842Z</time></trkpt><trkpt lat="39.65699778705434" lon="8.584295252848452"><ele>46.6</ele><time>2026-04-27T10:42:12.842Z</time></trkpt><trkpt lat="39.65694475176729" lon="8.584185682613466"><ele>46.8</ele><time>2026-04-27T10:42:13.842Z</time></trkpt><trkpt lat="39.65686803041032" lon="8.584084711072764"><ele>47.0</ele><time>2026-04-27T10:42:14.842Z</time></trkpt><trkpt lat="39.65678705536992" lon="8.584003461104073"><ele>47.0</ele><time>2026-04-27T10:42:15.842Z</time></trkpt><trkpt lat="39.65673183987887" lon="8.583877005478126"><ele>47.0</ele><time>2026-04-27T10:42:16.842Z</time></trkpt><trkpt lat="39.656701786145305" lon="8.58373504790947"><ele>47.0</ele><time>2026-04-27T10:42:17.842Z</time></trkpt><trkpt lat="39.65672136781995" lon="8.583572589309409"><ele>47.0</ele><time>2026-04-27T10:42:18.842Z</time></trkpt><trkpt lat="39.656723637277736" lon="8.583403178519978"><ele>47.0</ele><time>2026-04-27T10:42:19.842Z</time></trkpt><trkpt lat="39.65670724929021" lon="8.583248196840467"><ele>47.0</ele><time>2026-04-27T10:42:20.842Z</time></trkpt><trkpt lat="39.656677140326536" lon="8.58310943650981"><ele>47.0</ele><time>2026-04-27T10:42:21.842Z</time></trkpt><trkpt lat="39.65660430399554" lon="8.582991808557859"><ele>47.0</ele><time>2026-04-27T10:42:22.842Z</time></trkpt><trkpt lat="39.65650763798943" lon="8.582868516550908"><ele>48.0</ele><time>2026-04-27T10:42:23.842Z</time></trkpt><trkpt lat="39.65640813175259" lon="8.582744858763446"><ele>49.0</ele><time>2026-04-27T10:42:24.842Z</time></trkpt><trkpt lat="39.656285353832104" lon="8.582598173017903"><ele>50.0</ele><time>2026-04-27T10:42:25.842Z</time></trkpt><trkpt lat="39.656178669711785" lon="8.582438104720953"><ele>49.75</ele><time>2026-04-27T10:42:26.842Z</time></trkpt><trkpt lat="39.65605610305613" lon="8.582298277079955"><ele>49.5</ele><time>2026-04-27T10:42:27.842Z</time></trkpt><trkpt lat="39.65596519920382" lon="8.582167626218087"><ele>49.25</ele><time>2026-04-27T10:42:28.842Z</time></trkpt><trkpt lat="39.65587353425535" lon="8.58203713376616"><ele>49.0</ele><time>2026-04-27T10:42:29.842Z</time></trkpt><trkpt lat="39.65578902123324" lon="8.581888364149332"><ele>49.0</ele><time>2026-04-27T10:42:30.842Z</time></trkpt><trkpt lat="39.655733618911725" lon="8.581722970323911"><ele>49.0</ele><time>2026-04-27T10:42:31.842Z</time></trkpt><trkpt lat="39.65568505064066" lon="8.581548937394237"><ele>49.0</ele><time>2026-04-27T10:42:32.842Z</time></trkpt><trkpt lat="39.65562315082928" lon="8.581367243281967"><ele>49.0</ele><time>2026-04-27T10:42:33.842Z</time></trkpt><trkpt lat="39.65556012473974" lon="8.581184393364792"><ele>49.75</ele><time>2026-04-27T10:42:34.842Z</time></trkpt><trkpt lat="39.65551855743257" lon="8.581004652504406"><ele>50.5</ele><time>2026-04-27T10:42:35.842Z</time></trkpt><trkpt lat="39.6554956940664" lon="8.580825884001356"><ele>51.25</ele><time>2026-04-27T10:42:36.842Z</time></trkpt><trkpt lat="39.6554873622414" lon="8.580623336245798"><ele>52.0</ele><time>2026-04-27T10:42:37.842Z</time></trkpt><trkpt lat="39.65548810880765" lon="8.580426973136355"><ele>52.33333333333333</ele><time>2026-04-27T10:42:38.842Z</time></trkpt><trkpt lat="39.65549585488784" lon="8.580224714117819"><ele>52.66666666666667</ele><time>2026-04-27T10:42:39.842Z</time></trkpt><trkpt lat="39.65549597746173" lon="8.580013739229466"><ele>53.0</ele><time>2026-04-27T10:42:40.842Z</time></trkpt><trkpt lat="39.655483296594085" lon="8.579809612457042"><ele>53.0</ele><time>2026-04-27T10:42:41.842Z</time></trkpt><trkpt lat="39.65544745541585" lon="8.579641450089504"><ele>53.0</ele><time>2026-04-27T10:42:42.842Z</time></trkpt><trkpt lat="39.655388065632906" lon="8.57946496565079"><ele>53.0</ele><time>2026-04-27T10:42:43.842Z</time></trkpt><trkpt lat="39.6553072797688" lon="8.579292174825213"><ele>53.0</ele><time>2026-04-27T10:42:44.842Z</time></trkpt><trkpt lat="39.655223198019705" lon="8.57911736886175"><ele>53.0</ele><time>2026-04-27T10:42:45.842Z</time></trkpt><trkpt lat="39.655133862291436" lon="8.578916184530506"><ele>53.0</ele><time>2026-04-27T10:42:46.842Z</time></trkpt><trkpt lat="39.65503422588713" lon="8.578707613951968"><ele>53.0</ele><time>2026-04-27T10:42:47.842Z</time></trkpt><trkpt lat="39.65493915922604" lon="8.57850512768324"><ele>54.0</ele><time>2026-04-27T10:42:48.842Z</time></trkpt><trkpt lat="39.654839378999796" lon="8.578323756477964"><ele>55.0</ele><time>2026-04-27T10:42:49.842Z</time></trkpt><trkpt lat="39.654725318703925" lon="8.57816950013344"><ele>56.0</ele><time>2026-04-27T10:42:50.842Z</time></trkpt><trkpt lat="39.65459665171915" lon="8.578006558524905"><ele>56.0</ele><time>2026-04-27T10:42:51.842Z</time></trkpt><trkpt lat="39.65446869872486" lon="8.577843672324649"><ele>56.0</ele><time>2026-04-27T10:42:52.842Z</time></trkpt><trkpt lat="39.654343971576324" lon="8.57767827374705"><ele>56.0</ele><time>2026-04-27T10:42:53.842Z</time></trkpt><trkpt lat="39.65421661272079" lon="8.577511945582497"><ele>56.0</ele><time>2026-04-27T10:42:54.842Z</time></trkpt><trkpt lat="39.65408907361068" lon="8.577348652867558"><ele>56.0</ele><time>2026-04-27T10:42:55.842Z</time></trkpt><trkpt lat="39.65397727791165" lon="8.57718708623415"><ele>56.0</ele><time>2026-04-27T10:42:56.842Z</time></trkpt><trkpt lat="39.6538553551222" lon="8.577031083689127"><ele>56.5</ele><time>2026-04-27T10:42:57.842Z</time></trkpt><trkpt lat="39.65374655523994" lon="8.576894563361655"><ele>57.0</ele><time>2026-04-27T10:42:58.842Z</time></trkpt><trkpt lat="39.65365208190559" lon="8.576767573300932"><ele>57.5</ele><time>2026-04-27T10:42:59.842Z</time></trkpt><trkpt lat="39.65357022382349" lon="8.576656157414833"><ele>58.0</ele><time>2026-04-27T10:43:00.842Z</time></trkpt><trkpt lat="39.65347811834905" lon="8.576577069490881"><ele>58.0</ele><time>2026-04-27T10:43:01.842Z</time></trkpt><trkpt lat="39.653375220554054" lon="8.576521284367443"><ele>58.0</ele><time>2026-04-27T10:43:02.842Z</time></trkpt><trkpt lat="39.65326207002483" lon="8.57649330130228"><ele>58.0</ele><time>2026-04-27T10:43:03.842Z</time></trkpt><trkpt lat="39.6531467474461" lon="8.576453307802522"><ele>58.0</ele><time>2026-04-27T10:43:04.842Z</time></trkpt><trkpt lat="39.653045606891936" lon="8.576382911404258"><ele>58.0</ele><time>2026-04-27T10:43:05.842Z</time></trkpt><trkpt lat="39.65295546815572" lon="8.576287193743898"><ele>58.0</ele><time>2026-04-27T10:43:06.842Z</time></trkpt><trkpt lat="39.652894692474305" lon="8.576147428951016"><ele>58.0</ele><time>2026-04-27T10:43:07.842Z</time></trkpt><trkpt lat="39.6528171432439" lon="8.576009884485238"><ele>58.0</ele><time>2026-04-27T10:43:08.842Z</time></trkpt><trkpt lat="39.65275398534591" lon="8.575840702753695"><ele>58.666666666666664</ele><time>2026-04-27T10:43:09.84Z</time></trkpt><trkpt lat="39.6526928998949" lon="8.575658482313177"><ele>59.33333333333333</ele><time>2026-04-27T10:43:10.84Z</time></trkpt><trkpt lat="39.652629127201166" lon="8.575481517303835"><ele>60.0</ele><time>2026-04-27T10:43:11.84Z</time></trkpt><trkpt lat="39.65255951216895" lon="8.575288670511004"><ele>60.33333333333333</ele><time>2026-04-27T10:43:12.84Z</time></trkpt><trkpt lat="39.65248731700041" lon="8.575092552846986"><ele>60.666666666666664</ele><time>2026-04-27T10:43:13.84Z</time></trkpt><trkpt lat="39.652414151965694" lon="8.574899637122192"><ele>61.0</ele><time>2026-04-27T10:43:14.84Z</time></trkpt><trkpt lat="39.65234521572898" lon="8.574702079000415"><ele>61.33333333333333</ele><time>2026-04-27T10:43:15.841Z</time></trkpt><trkpt lat="39.65227091692127" lon="8.574512518092298"><ele>61.66666666666667</ele><time>2026-04-27T10:43:16.84Z</time></trkpt><trkpt lat="39.65219749199653" lon="8.574323802572962"><ele>62.0</ele><time>2026-04-27T10:43:17.84Z</time></trkpt><trkpt lat="39.6521305070196" lon="8.574133986613955"><ele>62.0</ele><time>2026-04-27T10:43:18.841Z</time></trkpt><trkpt lat="39.652064714603284" lon="8.573938995363244"><ele>62.0</ele><time>2026-04-27T10:43:19.84Z</time></trkpt><trkpt lat="39.652005927063534" lon="8.573738215442058"><ele>62.0</ele><time>2026-04-27T10:43:20.84Z</time></trkpt><trkpt lat="39.65194829003742" lon="8.573537332667183"><ele>63.0</ele><time>2026-04-27T10:43:21.841Z</time></trkpt><trkpt lat="39.651900177521476" lon="8.573331971443046"><ele>64.0</ele><time>2026-04-27T10:43:22.84Z</time></trkpt><trkpt lat="39.651867871995236" lon="8.57313125917013"><ele>65.0</ele><time>2026-04-27T10:43:23.84Z</time></trkpt><trkpt lat="39.65187158638121" lon="8.572925029075396"><ele>65.0</ele><time>2026-04-27T10:43:24.84Z</time></trkpt><trkpt lat="39.65185326908563" lon="8.572712315149861"><ele>65.0</ele><time>2026-04-27T10:43:25.84Z</time></trkpt><trkpt lat="39.651857547008355" lon="8.572492780531926"><ele>65.0</ele><time>2026-04-27T10:43:26.84Z</time></trkpt><trkpt lat="39.651864856361414" lon="8.572276138659669"><ele>65.0</ele><time>2026-04-27T10:43:27.84Z</time></trkpt><trkpt lat="39.651866900232655" lon="8.572090363834944"><ele>65.0</ele><time>2026-04-27T10:43:28.84Z</time></trkpt><trkpt lat="39.65186180803803" lon="8.571917835076997"><ele>65.0</ele><time>2026-04-27T10:43:29.84Z</time></trkpt><trkpt lat="39.65183404443713" lon="8.571750276926883"><ele>65.0</ele><time>2026-04-27T10:43:30.84Z</time></trkpt><trkpt lat="39.651792291577124" lon="8.571586794198426"><ele>65.5</ele><time>2026-04-27T10:43:31.84Z</time></trkpt><trkpt lat="39.65173352362261" lon="8.571430917939434"><ele>66.0</ele><time>2026-04-27T10:43:32.84Z</time></trkpt><trkpt lat="39.651661032776275" lon="8.571271300239648"><ele>66.5</ele><time>2026-04-27T10:43:33.84Z</time></trkpt><trkpt lat="39.65158297805216" lon="8.571097745689903"><ele>67.0</ele><time>2026-04-27T10:43:34.84Z</time></trkpt><trkpt lat="39.65151115550829" lon="8.570928875508027"><ele>67.5</ele><time>2026-04-27T10:43:35.84Z</time></trkpt><trkpt lat="39.651428135184496" lon="8.570761577082369"><ele>68.0</ele><time>2026-04-27T10:43:36.84Z</time></trkpt><trkpt lat="39.65135010442517" lon="8.5706048397708"><ele>68.5</ele><time>2026-04-27T10:43:37.84Z</time></trkpt><trkpt lat="39.651283893252696" lon="8.570450800753937"><ele>69.0</ele><time>2026-04-27T10:43:38.84Z</time></trkpt><trkpt lat="39.65123579009784" lon="8.570301058086162"><ele>69.5</ele><time>2026-04-27T10:43:39.84Z</time></trkpt><trkpt lat="39.65119420249112" lon="8.570142809436621"><ele>70.0</ele><time>2026-04-27T10:43:40.84Z</time></trkpt><trkpt lat="39.65119226898002" lon="8.569963196048874"><ele>70.5</ele><time>2026-04-27T10:43:41.84Z</time></trkpt><trkpt lat="39.6511666380109" lon="8.569778794778538"><ele>71.0</ele><time>2026-04-27T10:43:42.84Z</time></trkpt><trkpt lat="39.6511617296419" lon="8.56958421793712"><ele>71.25</ele><time>2026-04-27T10:43:43.84Z</time></trkpt><trkpt lat="39.65116864415525" lon="8.56937855110666"><ele>71.5</ele><time>2026-04-27T10:43:44.84Z</time></trkpt><trkpt lat="39.65118215579688" lon="8.569188924652368"><ele>71.75</ele><time>2026-04-27T10:43:45.84Z</time></trkpt><trkpt lat="39.65119735389441" lon="8.569029514734543"><ele>72.0</ele><time>2026-04-27T10:43:46.84Z</time></trkpt><trkpt lat="39.65119844432976" lon="8.56888221728181"><ele>72.0</ele><time>2026-04-27T10:43:47.84Z</time></trkpt><trkpt lat="39.65117351309233" lon="8.56875222008175"><ele>72.0</ele><time>2026-04-27T10:43:48.84Z</time></trkpt><trkpt lat="39.6511182891598" lon="8.56862861908083"><ele>72.0</ele><time>2026-04-27T10:43:49.84Z</time></trkpt><trkpt lat="39.65104646266436" lon="8.568487162961224"><ele>72.0</ele><time>2026-04-27T10:43:50.84Z</time></trkpt><trkpt lat="39.65097190524551" lon="8.568350193939029"><ele>73.25</ele><time>2026-04-27T10:43:51.84Z</time></trkpt><trkpt lat="39.65090911930376" lon="8.568207222663046"><ele>74.5</ele><time>2026-04-27T10:43:52.84Z</time></trkpt><trkpt lat="39.6508526928747" lon="8.568064439729373"><ele>75.75</ele><time>2026-04-27T10:43:53.84Z</time></trkpt><trkpt lat="39.65077955754224" lon="8.567895817279036"><ele>77.0</ele><time>2026-04-27T10:43:54.84Z</time></trkpt><trkpt lat="39.65070457013466" lon="8.567713015761802"><ele>78.0</ele><time>2026-04-27T10:43:55.84Z</time></trkpt><trkpt lat="39.6506205891932" lon="8.567520390515897"><ele>79.0</ele><time>2026-04-27T10:43:56.84Z</time></trkpt><trkpt lat="39.65054247620347" lon="8.567340723356113"><ele>80.0</ele><time>2026-04-27T10:43:57.84Z</time></trkpt><trkpt lat="39.65046677578729" lon="8.567139837593182"><ele>81.33333333333334</ele><time>2026-04-27T10:43:58.84Z</time></trkpt><trkpt lat="39.65038764572997" lon="8.566954068949567"><ele>82.66666666666667</ele><time>2026-04-27T10:43:59.84Z</time></trkpt><trkpt lat="39.65030164475852" lon="8.566753417443826"><ele>84.0</ele><time>2026-04-27T10:44:00.84Z</time></trkpt><trkpt lat="39.65021587346413" lon="8.566552499105935"><ele>84.33333333333333</ele><time>2026-04-27T10:44:01.84Z</time></trkpt><trkpt lat="39.650127001111706" lon="8.566354321905973"><ele>84.66666666666666</ele><time>2026-04-27T10:44:02.84Z</time></trkpt><trkpt lat="39.6500425648765" lon="8.566156200309994"><ele>85.0</ele><time>2026-04-27T10:44:03.84Z</time></trkpt><trkpt lat="39.64995699954229" lon="8.565964193412979"><ele>86.0</ele><time>2026-04-27T10:44:04.84Z</time></trkpt><trkpt lat="39.64986857203056" lon="8.56577380812086"><ele>87.0</ele><time>2026-04-27T10:44:05.84Z</time></trkpt><trkpt lat="39.649783116050024" lon="8.565578209389146"><ele>88.0</ele><time>2026-04-27T10:44:06.84Z</time></trkpt><trkpt lat="39.64969237181397" lon="8.565377214711651"><ele>89.0</ele><time>2026-04-27T10:44:07.84Z</time></trkpt><trkpt lat="39.64960529095966" lon="8.56517097063794"><ele>90.0</ele><time>2026-04-27T10:44:08.84Z</time></trkpt><trkpt lat="39.64951752721195" lon="8.564966610211886"><ele>91.0</ele><time>2026-04-27T10:44:09.84Z</time></trkpt><trkpt lat="39.64942683029297" lon="8.56476228074617"><ele>91.33333333333333</ele><time>2026-04-27T10:44:10.84Z</time></trkpt><trkpt lat="39.64935134592149" lon="8.56455219498033"><ele>91.66666666666667</ele><time>2026-04-27T10:44:11.84Z</time></trkpt><trkpt lat="39.6492617253568" lon="8.564337636450658"><ele>92.0</ele><time>2026-04-27T10:44:12.84Z</time></trkpt><trkpt lat="39.64917894706146" lon="8.564120245683517"><ele>93.0</ele><time>2026-04-27T10:44:13.84Z</time></trkpt><trkpt lat="39.649111432254074" lon="8.56390941573015"><ele>94.0</ele><time>2026-04-27T10:44:14.84Z</time></trkpt><trkpt lat="39.649034907144866" lon="8.563687730349997"><ele>95.0</ele><time>2026-04-27T10:44:15.84Z</time></trkpt><trkpt lat="39.64895911346475" lon="8.563464192693559"><ele>95.66666666666667</ele><time>2026-04-27T10:44:16.84Z</time></trkpt><trkpt lat="39.64887982368655" lon="8.563249112657923"><ele>96.33333333333334</ele><time>2026-04-27T10:44:17.84Z</time></trkpt><trkpt lat="39.64879921022824" lon="8.563032199970127"><ele>97.0</ele><time>2026-04-27T10:44:18.84Z</time></trkpt><trkpt lat="39.64870740821925" lon="8.562816307608493"><ele>97.66666666666667</ele><time>2026-04-27T10:44:19.84Z</time></trkpt><trkpt lat="39.64860953578786" lon="8.562598915007671"><ele>98.33333333333334</ele><time>2026-04-27T10:44:20.84Z</time></trkpt><trkpt lat="39.64851082142042" lon="8.562388539039636"><ele>99.0</ele><time>2026-04-27T10:44:21.84Z</time></trkpt><trkpt lat="39.64841210983115" lon="8.56218559347327"><ele>99.33333333333334</ele><time>2026-04-27T10:44:22.84Z</time></trkpt><trkpt lat="39.648313644981236" lon="8.561968160406272"><ele>99.66666666666667</ele><time>2026-04-27T10:44:23.84Z</time></trkpt><trkpt lat="39.64821434852359" lon="8.56175566558382"><ele>100.0</ele><time>2026-04-27T10:44:24.84Z</time></trkpt><trkpt lat="39.64811988750671" lon="8.561550893213333"><ele>100.0</ele><time>2026-04-27T10:44:25.84Z</time></trkpt><trkpt lat="39.64802303352394" lon="8.56134056256774"><ele>100.0</ele><time>2026-04-27T10:44:26.84Z</time></trkpt><trkpt lat="39.647930205715134" lon="8.561142326189168"><ele>100.0</ele><time>2026-04-27T10:44:27.84Z</time></trkpt><trkpt lat="39.64784240459083" lon="8.560951217785515"><ele>102.33333333333334</ele><time>2026-04-27T10:44:28.84Z</time></trkpt><trkpt lat="39.64775444537181" lon="8.560763412337936"><ele>104.66666666666666</ele><time>2026-04-27T10:44:29.84Z</time></trkpt><trkpt lat="39.647668616131526" lon="8.560558615130121"><ele>107.0</ele><time>2026-04-27T10:44:30.84Z</time></trkpt><trkpt lat="39.64757288494162" lon="8.560311673116244"><ele>108.0</ele><time>2026-04-27T10:44:31.84Z</time></trkpt><trkpt lat="39.64748025454327" lon="8.560071663483082"><ele>109.0</ele><time>2026-04-27T10:44:32.84Z</time></trkpt><trkpt lat="39.647424256293476" lon="8.560033307535713"><ele>110.0</ele><time>2026-04-27T10:44:34.84Z</time></trkpt><trkpt lat="39.64740246241679" lon="8.55994554767543"><ele>111.0</ele><time>2026-04-27T10:44:37.84Z</time></trkpt><trkpt lat="39.647314478683285" lon="8.560049202174543"><ele>111.0</ele><time>2026-04-27T10:44:38.84Z</time></trkpt><trkpt lat="39.6472247353728" lon="8.560068511838015"><ele>111.0</ele><time>2026-04-27T10:44:40.84Z</time></trkpt><trkpt lat="39.64715407904514" lon="8.56007144381837"><ele>111.0</ele><time>2026-04-27T10:44:42.84Z</time></trkpt><trkpt lat="39.64708362547531" lon="8.560006430437728"><ele>111.0</ele><time>2026-04-27T10:44:45.84Z</time></trkpt><trkpt lat="39.64701173174471" lon="8.559871338510565"><ele>111.0</ele><time>2026-04-27T10:44:47.84Z</time></trkpt><trkpt lat="39.64696050893366" lon="8.559780327880246"><ele>113.6</ele><time>2026-04-27T10:44:48.84Z</time></trkpt><trkpt lat="39.646908020044116" lon="8.559669480418675"><ele>116.19999999999999</ele><time>2026-04-27T10:44:49.84Z</time></trkpt><trkpt lat="39.64685295146178" lon="8.55954562039104"><ele>118.80000000000001</ele><time>2026-04-27T10:44:50.84Z</time></trkpt><trkpt lat="39.64680989650087" lon="8.55943348270306"><ele>121.4</ele><time>2026-04-27T10:44:51.84Z</time></trkpt><trkpt lat="39.64678314231291" lon="8.55930981881619"><ele>124.0</ele><time>2026-04-27T10:44:52.84Z</time></trkpt><trkpt lat="39.64675257226737" lon="8.559212187499108"><ele>124.0</ele><time>2026-04-27T10:44:53.84Z</time></trkpt><trkpt lat="39.64670520624004" lon="8.559098235119292"><ele>124.0</ele><time>2026-04-27T10:44:55.84Z</time></trkpt><trkpt lat="39.64665799358195" lon="8.55904283906262"><ele>124.0</ele><time>2026-04-27T10:44:56.84Z</time></trkpt><trkpt lat="39.64656115313949" lon="8.55905128108368"><ele>124.0</ele><time>2026-04-27T10:44:57.84Z</time></trkpt><trkpt lat="39.64648274004599" lon="8.559119644472332"><ele>124.0</ele><time>2026-04-27T10:44:59.84Z</time></trkpt><trkpt lat="39.64646104294271" lon="8.559251303184002"><ele>124.00000000000001</ele><time>2026-04-27T10:45:00.84Z</time></trkpt><trkpt lat="39.64646261493855" lon="8.559357951234686"><ele>124.0</ele><time>2026-04-27T10:45:01.84Z</time></trkpt><trkpt lat="39.64647472860502" lon="8.559473278429124"><ele>124.0</ele><time>2026-04-27T10:45:02.84Z</time></trkpt><trkpt lat="39.64648912738787" lon="8.559581025663094"><ele>124.0</ele><time>2026-04-27T10:45:03.84Z</time></trkpt><trkpt lat="39.646497875542416" lon="8.55968008948838"><ele>124.00000000000001</ele><time>2026-04-27T10:45:04.84Z</time></trkpt><trkpt lat="39.6465027245963" lon="8.559786613934119"><ele>124.0</ele><time>2026-04-27T10:45:05.84Z</time></trkpt><trkpt lat="39.646522471734606" lon="8.559889557406299"><ele>124.2</ele><time>2026-04-27T10:45:06.84Z</time></trkpt><trkpt lat="39.64651978510865" lon="8.559993630111988"><ele>124.4</ele><time>2026-04-27T10:45:07.84Z</time></trkpt><trkpt lat="39.64652325439162" lon="8.560110819898291"><ele>124.6</ele><time>2026-04-27T10:45:08.84Z</time></trkpt><trkpt lat="39.646529255334066" lon="8.560258863951503"><ele>124.8</ele><time>2026-04-27T10:45:09.84Z</time></trkpt><trkpt lat="39.64652971006898" lon="8.560400947824196"><ele>125.0</ele><time>2026-04-27T10:45:10.84Z</time></trkpt><trkpt lat="39.64652103945807" lon="8.56054700303715"><ele>125.6</ele><time>2026-04-27T10:45:11.84Z</time></trkpt><trkpt lat="39.64653687108535" lon="8.560694238705311"><ele>126.2</ele><time>2026-04-27T10:45:12.84Z</time></trkpt><trkpt lat="39.64653268923388" lon="8.560838720066256"><ele>126.80000000000001</ele><time>2026-04-27T10:45:13.84Z</time></trkpt><trkpt lat="39.64653624391315" lon="8.56096903851389"><ele>127.4</ele><time>2026-04-27T10:45:14.839Z</time></trkpt><trkpt lat="39.646518022149195" lon="8.561072804869518"><ele>128.0</ele><time>2026-04-27T10:45:15.838Z</time></trkpt><trkpt lat="39.64649406701391" lon="8.561149642188727"><ele>128.0</ele><time>2026-04-27T10:45:16.838Z</time></trkpt><trkpt lat="39.64642126699216" lon="8.561236420613456"><ele>128.0</ele><time>2026-04-27T10:45:18.839Z</time></trkpt><trkpt lat="39.646324601993065" lon="8.561238607931175"><ele>128.0</ele><time>2026-04-27T10:45:20.839Z</time></trkpt><trkpt lat="39.64626078757237" lon="8.561153367485154"><ele>128.0</ele><time>2026-04-27T10:45:22.838Z</time></trkpt><trkpt lat="39.64625373215203" lon="8.56101306424956"><ele>128.0</ele><time>2026-04-27T10:45:24.839Z</time></trkpt><trkpt lat="39.646236882225104" lon="8.56092250054698"><ele>128.0</ele><time>2026-04-27T10:45:25.839Z</time></trkpt><trkpt lat="39.64624985636737" lon="8.560805563404866"><ele>128.0</ele><time>2026-04-27T10:45:26.838Z</time></trkpt><trkpt lat="39.6462374382533" lon="8.560694516103675"><ele>128.0</ele><time>2026-04-27T10:45:27.839Z</time></trkpt><trkpt lat="39.64623260733898" lon="8.560563143746732"><ele>128.0</ele><time>2026-04-27T10:45:28.839Z</time></trkpt><trkpt lat="39.6462288270322" lon="8.560439692459076"><ele>128.0</ele><time>2026-04-27T10:45:29.839Z</time></trkpt><trkpt lat="39.64622560872902" lon="8.560328322257003"><ele>127.4</ele><time>2026-04-27T10:45:30.839Z</time></trkpt><trkpt lat="39.646219001941084" lon="8.560200072362543"><ele>126.80000000000001</ele><time>2026-04-27T10:45:31.839Z</time></trkpt><trkpt lat="39.64620078283004" lon="8.560089478617662"><ele>126.2</ele><time>2026-04-27T10:45:32.839Z</time></trkpt><trkpt lat="39.64615551519105" lon="8.55999127681854"><ele>125.6</ele><time>2026-04-27T10:45:33.839Z</time></trkpt><trkpt lat="39.646109787734176" lon="8.559895558897052"><ele>125.0</ele><time>2026-04-27T10:45:34.839Z</time></trkpt><trkpt lat="39.64607727015682" lon="8.559788152479982"><ele>130.0</ele><time>2026-04-27T10:45:35.839Z</time></trkpt><trkpt lat="39.64605249231595" lon="8.55969279823635"><ele>135.0</ele><time>2026-04-27T10:45:36.839Z</time></trkpt><trkpt lat="39.646031255276625" lon="8.559597806329746"><ele>140.0</ele><time>2026-04-27T10:45:37.839Z</time></trkpt><trkpt lat="39.646012717441" lon="8.559499431029172"><ele>145.0</ele><time>2026-04-27T10:45:38.839Z</time></trkpt><trkpt lat="39.64599251155899" lon="8.559391673859142"><ele>150.0</ele><time>2026-04-27T10:45:39.839Z</time></trkpt><trkpt lat="39.645955278977574" lon="8.5592761500917"><ele>155.0</ele><time>2026-04-27T10:45:40.839Z</time></trkpt><trkpt lat="39.64591010011392" lon="8.55916895071615"><ele>155.0</ele><time>2026-04-27T10:45:41.839Z</time></trkpt><trkpt lat="39.64585285669024" lon="8.559083058365976"><ele>155.0</ele><time>2026-04-27T10:45:42.839Z</time></trkpt><trkpt lat="39.645799087196444" lon="8.558977107450941"><ele>155.0</ele><time>2026-04-27T10:45:43.839Z</time></trkpt><trkpt lat="39.64574075068142" lon="8.558865839407632"><ele>155.0</ele><time>2026-04-27T10:45:44.839Z</time></trkpt><trkpt lat="39.645676523834844" lon="8.55878908463172"><ele>155.0</ele><time>2026-04-27T10:45:45.839Z</time></trkpt><trkpt lat="39.64560172596753" lon="8.55872784004351"><ele>153.83333333333331</ele><time>2026-04-27T10:45:46.839Z</time></trkpt><trkpt lat="39.645515587316694" lon="8.558692793589223"><ele>152.66666666666666</ele><time>2026-04-27T10:45:47.839Z</time></trkpt><trkpt lat="39.64545311233476" lon="8.558646583828523"><ele>151.5</ele><time>2026-04-27T10:45:48.839Z</time></trkpt><trkpt lat="39.645382432912186" lon="8.55860243124167"><ele>150.33333333333334</ele><time>2026-04-27T10:45:49.839Z</time></trkpt><trkpt lat="39.64532267899844" lon="8.55855990762614"><ele>149.16666666666669</ele><time>2026-04-27T10:45:50.839Z</time></trkpt><trkpt lat="39.64528799344345" lon="8.558441277531205"><ele>148.0</ele><time>2026-04-27T10:45:51.839Z</time></trkpt><trkpt lat="39.64523151489829" lon="8.558344678214889"><ele>153.2</ele><time>2026-04-27T10:45:52.839Z</time></trkpt><trkpt lat="39.645198813406125" lon="8.558240073901757"><ele>158.4</ele><time>2026-04-27T10:45:53.839Z</time></trkpt><trkpt lat="39.64516821074556" lon="8.55814735577034"><ele>163.6</ele><time>2026-04-27T10:45:54.839Z</time></trkpt><trkpt lat="39.64511947049585" lon="8.558048211320605"><ele>168.79999999999998</ele><time>2026-04-27T10:45:55.839Z</time></trkpt><trkpt lat="39.645068982962776" lon="8.55794600965069"><ele>174.0</ele><time>2026-04-27T10:45:56.839Z</time></trkpt><trkpt lat="39.64499752717727" lon="8.557846013632995"><ele>174.0</ele><time>2026-04-27T10:45:57.839Z</time></trkpt><trkpt lat="39.64492843840199" lon="8.557749362877894"><ele>174.0</ele><time>2026-04-27T10:45:58.839Z</time></trkpt><trkpt lat="39.64484573325236" lon="8.557658325820439"><ele>174.0</ele><time>2026-04-27T10:45:59.839Z</time></trkpt><trkpt lat="39.64479601529968" lon="8.557547234081488"><ele>174.0</ele><time>2026-04-27T10:46:00.839Z</time></trkpt><trkpt lat="39.6447429111454" lon="8.557443057725658"><ele>174.0</ele><time>2026-04-27T10:46:01.839Z</time></trkpt><trkpt lat="39.64473972079824" lon="8.55731352774618"><ele>174.0</ele><time>2026-04-27T10:46:02.839Z</time></trkpt><trkpt lat="39.64471649083778" lon="8.557206067542982"><ele>174.0</ele><time>2026-04-27T10:46:03.839Z</time></trkpt><trkpt lat="39.64470996238519" lon="8.55709748465265"><ele>174.0</ele><time>2026-04-27T10:46:04.839Z</time></trkpt><trkpt lat="39.644674105280195" lon="8.556979055520818"><ele>174.0</ele><time>2026-04-27T10:46:05.839Z</time></trkpt><trkpt lat="39.64463335981629" lon="8.556883624459546"><ele>174.0</ele><time>2026-04-27T10:46:06.839Z</time></trkpt><trkpt lat="39.644595862137216" lon="8.556775393365808"><ele>174.0</ele><time>2026-04-27T10:46:07.839Z</time></trkpt><trkpt lat="39.64453395884593" lon="8.556697816505306"><ele>179.0</ele><time>2026-04-27T10:46:08.839Z</time></trkpt><trkpt lat="39.64445865661909" lon="8.556618336939897"><ele>184.0</ele><time>2026-04-27T10:46:09.839Z</time></trkpt><trkpt lat="39.644372869432665" lon="8.556555218166213"><ele>189.0</ele><time>2026-04-27T10:46:10.839Z</time></trkpt><trkpt lat="39.64428746539138" lon="8.556486186196974"><ele>194.0</ele><time>2026-04-27T10:46:11.839Z</time></trkpt><trkpt lat="39.6442098752409" lon="8.55641475479311"><ele>199.0</ele><time>2026-04-27T10:46:12.839Z</time></trkpt><trkpt lat="39.64411840803337" lon="8.556338719865202"><ele>199.0</ele><time>2026-04-27T10:46:13.839Z</time></trkpt><trkpt lat="39.6440410093334" lon="8.556257347219999"><ele>199.0</ele><time>2026-04-27T10:46:14.838Z</time></trkpt><trkpt lat="39.64394566177207" lon="8.556206417046383"><ele>199.0</ele><time>2026-04-27T10:46:15.839Z</time></trkpt><trkpt lat="39.64386247305442" lon="8.556136660598117"><ele>199.0</ele><time>2026-04-27T10:46:16.839Z</time></trkpt><trkpt lat="39.64378343614602" lon="8.556064244174637"><ele>199.0</ele><time>2026-04-27T10:46:17.838Z</time></trkpt><trkpt lat="39.643709937503104" lon="8.555983501810173"><ele>196.39999999999998</ele><time>2026-04-27T10:46:18.838Z</time></trkpt><trkpt lat="39.64365297702076" lon="8.55589344288925"><ele>193.8</ele><time>2026-04-27T10:46:19.838Z</time></trkpt><trkpt lat="39.64361111632279" lon="8.555793184779509"><ele>191.2</ele><time>2026-04-27T10:46:20.838Z</time></trkpt><trkpt lat="39.64359267647269" lon="8.555689191229353"><ele>188.60000000000002</ele><time>2026-04-27T10:46:21.838Z</time></trkpt><trkpt lat="39.64364812148706" lon="8.55552902146457"><ele>186.0</ele><time>2026-04-27T10:46:23.838Z</time></trkpt><trkpt lat="39.643698287979696" lon="8.555445354907278"><ele>187.60000000000002</ele><time>2026-04-27T10:46:24.838Z</time></trkpt><trkpt lat="39.643758650289364" lon="8.555363139009541"><ele>189.2</ele><time>2026-04-27T10:46:25.838Z</time></trkpt><trkpt lat="39.64382076956408" lon="8.55529160363664"><ele>190.8</ele><time>2026-04-27T10:46:26.838Z</time></trkpt><trkpt lat="39.643866732112926" lon="8.555183933186362"><ele>192.39999999999998</ele><time>2026-04-27T10:46:27.838Z</time></trkpt><trkpt lat="39.64391521835964" lon="8.555055497163325"><ele>194.0</ele><time>2026-04-27T10:46:28.838Z</time></trkpt><trkpt lat="39.64393888763251" lon="8.554947999090086"><ele>194.0</ele><time>2026-04-27T10:46:29.838Z</time></trkpt><trkpt lat="39.64396264387123" lon="8.55483613197229"><ele>194.0</ele><time>2026-04-27T10:46:30.838Z</time></trkpt><trkpt lat="39.64395555095783" lon="8.554724617868208"><ele>194.0</ele><time>2026-04-27T10:46:31.838Z</time></trkpt><trkpt lat="39.64395715031683" lon="8.554599431118472"><ele>194.0</ele><time>2026-04-27T10:46:32.838Z</time></trkpt><trkpt lat="39.64393764438784" lon="8.554462572927225"><ele>194.0</ele><time>2026-04-27T10:46:33.838Z</time></trkpt><trkpt lat="39.64392588564412" lon="8.554342713795206"><ele>195.6</ele><time>2026-04-27T10:46:34.838Z</time></trkpt><trkpt lat="39.6439126841606" lon="8.554212709899605"><ele>197.2</ele><time>2026-04-27T10:46:35.838Z</time></trkpt><trkpt lat="39.64389826816734" lon="8.55408754345984"><ele>198.79999999999998</ele><time>2026-04-27T10:46:36.838Z</time></trkpt><trkpt lat="39.64388712986424" lon="8.553952013959096"><ele>200.39999999999998</ele><time>2026-04-27T10:46:37.838Z</time></trkpt><trkpt lat="39.643886774924276" lon="8.553811490942977"><ele>202.0</ele><time>2026-04-27T10:46:38.838Z</time></trkpt><trkpt lat="39.64385715086703" lon="8.553666559245222"><ele>202.0</ele><time>2026-04-27T10:46:39.838Z</time></trkpt><trkpt lat="39.6438458660474" lon="8.553544471901983"><ele>202.0</ele><time>2026-04-27T10:46:40.838Z</time></trkpt><trkpt lat="39.64383069361832" lon="8.553420111603039"><ele>202.0</ele><time>2026-04-27T10:46:41.838Z</time></trkpt><trkpt lat="39.64378208936317" lon="8.553295238176553"><ele>202.0</ele><time>2026-04-27T10:46:42.838Z</time></trkpt><trkpt lat="39.64372230387673" lon="8.553184194264164"><ele>202.0</ele><time>2026-04-27T10:46:43.838Z</time></trkpt><trkpt lat="39.64365772530347" lon="8.553072838854943"><ele>208.2</ele><time>2026-04-27T10:46:44.838Z</time></trkpt><trkpt lat="39.643607969988324" lon="8.55295336640816"><ele>214.39999999999998</ele><time>2026-04-27T10:46:45.838Z</time></trkpt><trkpt lat="39.643593336412046" lon="8.55283467817496"><ele>220.60000000000002</ele><time>2026-04-27T10:46:46.838Z</time></trkpt><trkpt lat="39.643595868081476" lon="8.552721149276971"><ele>226.8</ele><time>2026-04-27T10:46:47.838Z</time></trkpt><trkpt lat="39.64360285897026" lon="8.552606460590484"><ele>233.0</ele><time>2026-04-27T10:46:48.838Z</time></trkpt><trkpt lat="39.6435899021427" lon="8.55249642825143"><ele>233.60000000000002</ele><time>2026-04-27T10:46:49.838Z</time></trkpt><trkpt lat="39.64356875032897" lon="8.552409294908344"><ele>234.20000000000002</ele><time>2026-04-27T10:46:50.838Z</time></trkpt><trkpt lat="39.64354675740598" lon="8.55227501481655"><ele>234.8</ele><time>2026-04-27T10:46:52.838Z</time></trkpt><trkpt lat="39.6435656237657" lon="8.552067259092697"><ele>235.4</ele><time>2026-04-27T10:46:53.838Z</time></trkpt><trkpt lat="39.643638171472034" lon="8.551958266136673"><ele>236.0</ele><time>2026-04-27T10:46:54.838Z</time></trkpt><trkpt lat="39.64368845080722" lon="8.551860702234585"><ele>233.8</ele><time>2026-04-27T10:46:55.838Z</time></trkpt><trkpt lat="39.64375380655263" lon="8.55179536201345"><ele>231.60000000000002</ele><time>2026-04-27T10:46:56.838Z</time></trkpt><trkpt lat="39.64379857019892" lon="8.551681022806198"><ele>229.4</ele><time>2026-04-27T10:46:57.838Z</time></trkpt><trkpt lat="39.6438267007873" lon="8.55155401856949"><ele>227.2</ele><time>2026-04-27T10:46:58.838Z</time></trkpt><trkpt lat="39.64383727984457" lon="8.551436601584962"><ele>225.0</ele><time>2026-04-27T10:46:59.838Z</time></trkpt><trkpt lat="39.64382835212324" lon="8.55130520672746"><ele>227.6</ele><time>2026-04-27T10:47:00.838Z</time></trkpt><trkpt lat="39.64380668334136" lon="8.551180737263998"><ele>230.2</ele><time>2026-04-27T10:47:01.838Z</time></trkpt><trkpt lat="39.64380776000763" lon="8.551051755059866"><ele>232.8</ele><time>2026-04-27T10:47:02.838Z</time></trkpt><trkpt lat="39.64381693653532" lon="8.550935683839654"><ele>235.4</ele><time>2026-04-27T10:47:03.838Z</time></trkpt><trkpt lat="39.64384691373456" lon="8.550826107285115"><ele>238.0</ele><time>2026-04-27T10:47:04.838Z</time></trkpt><trkpt lat="39.64388694771057" lon="8.550723858732669"><ele>238.0</ele><time>2026-04-27T10:47:05.838Z</time></trkpt><trkpt lat="39.64394532157011" lon="8.550626188728124"><ele>238.0</ele><time>2026-04-27T10:47:06.838Z</time></trkpt><trkpt lat="39.643995659398406" lon="8.550525157852038"><ele>238.0</ele><time>2026-04-27T10:47:07.838Z</time></trkpt><trkpt lat="39.644049806265436" lon="8.550397032548121"><ele>238.0</ele><time>2026-04-27T10:47:08.838Z</time></trkpt><trkpt lat="39.64411810345973" lon="8.550281501381033"><ele>238.0</ele><time>2026-04-27T10:47:09.838Z</time></trkpt><trkpt lat="39.64420814563054" lon="8.55017996059918"><ele>240.60000000000002</ele><time>2026-04-27T10:47:10.838Z</time></trkpt><trkpt lat="39.64427375996269" lon="8.550050920176524"><ele>243.20000000000002</ele><time>2026-04-27T10:47:11.838Z</time></trkpt><trkpt lat="39.64434544094565" lon="8.549948754809474"><ele>245.8</ele><time>2026-04-27T10:47:12.838Z</time></trkpt><trkpt lat="39.6443969385039" lon="8.549845479412179"><ele>248.4</ele><time>2026-04-27T10:47:13.838Z</time></trkpt><trkpt lat="39.64443398751167" lon="8.549745479182388"><ele>251.0</ele><time>2026-04-27T10:47:14.838Z</time></trkpt><trkpt lat="39.64443980558085" lon="8.549637302750938"><ele>253.20000000000002</ele><time>2026-04-27T10:47:15.838Z</time></trkpt><trkpt lat="39.6444431062651" lon="8.549517837891692"><ele>255.40000000000003</ele><time>2026-04-27T10:47:16.838Z</time></trkpt><trkpt lat="39.6444414341097" lon="8.549378384965607"><ele>257.6</ele><time>2026-04-27T10:47:17.838Z</time></trkpt><trkpt lat="39.64442247981937" lon="8.549239854044453"><ele>259.8</ele><time>2026-04-27T10:47:18.838Z</time></trkpt><trkpt lat="39.64441265130111" lon="8.549081880498619"><ele>262.0</ele><time>2026-04-27T10:47:19.838Z</time></trkpt><trkpt lat="39.64440695071887" lon="8.548913428310708"><ele>262.0</ele><time>2026-04-27T10:47:20.837Z</time></trkpt><trkpt lat="39.6444004661685" lon="8.548753592614737"><ele>262.0</ele><time>2026-04-27T10:47:21.837Z</time></trkpt><trkpt lat="39.64439405603052" lon="8.548583518435715"><ele>262.0</ele><time>2026-04-27T10:47:22.837Z</time></trkpt><trkpt lat="39.64438942015091" lon="8.548414637186962"><ele>262.0</ele><time>2026-04-27T10:47:23.837Z</time></trkpt><trkpt lat="39.64439467597652" lon="8.548252127808968"><ele>262.2</ele><time>2026-04-27T10:47:24.837Z</time></trkpt><trkpt lat="39.64440128638808" lon="8.548097193181272"><ele>262.4</ele><time>2026-04-27T10:47:25.837Z</time></trkpt><trkpt lat="39.644404151511885" lon="8.547962758660494"><ele>262.6</ele><time>2026-04-27T10:47:26.837Z</time></trkpt><trkpt lat="39.644396338900194" lon="8.547834997152208"><ele>262.8</ele><time>2026-04-27T10:47:27.837Z</time></trkpt><trkpt lat="39.64437820355956" lon="8.547718873956992"><ele>263.0</ele><time>2026-04-27T10:47:28.837Z</time></trkpt><trkpt lat="39.644350104871506" lon="8.54761989618277"><ele>261.2</ele><time>2026-04-27T10:47:29.837Z</time></trkpt><trkpt lat="39.64431484760466" lon="8.547533874781317"><ele>259.4</ele><time>2026-04-27T10:47:30.836Z</time></trkpt><trkpt lat="39.64423441974114" lon="8.547454185493027"><ele>257.59999999999997</ele><time>2026-04-27T10:47:31.836Z</time></trkpt><trkpt lat="39.64414690083101" lon="8.547390218162079"><ele>255.79999999999998</ele><time>2026-04-27T10:47:32.837Z</time></trkpt><trkpt lat="39.64405941629812" lon="8.547338864081276"><ele>254.0</ele><time>2026-04-27T10:47:33.837Z</time></trkpt><trkpt lat="39.64396354169367" lon="8.547283980299328"><ele>254.0</ele><time>2026-04-27T10:47:34.837Z</time></trkpt><trkpt lat="39.64388625152073" lon="8.547231403527682"><ele>253.99999999999997</ele><time>2026-04-27T10:47:35.837Z</time></trkpt><trkpt lat="39.64379602048086" lon="8.547132228168035"><ele>253.99999999999997</ele><time>2026-04-27T10:47:37.837Z</time></trkpt><trkpt lat="39.64378159954926" lon="8.546982438711725"><ele>254.0</ele><time>2026-04-27T10:47:39.837Z</time></trkpt><trkpt lat="39.64380696494528" lon="8.546880729171"><ele>254.0</ele><time>2026-04-27T10:47:40.837Z</time></trkpt><trkpt lat="39.64386369768494" lon="8.546771332955698"><ele>252.0</ele><time>2026-04-27T10:47:41.837Z</time></trkpt><trkpt lat="39.643920328159545" lon="8.546666160111375"><ele>249.99999999999997</ele><time>2026-04-27T10:47:42.837Z</time></trkpt><trkpt lat="39.643966641607285" lon="8.546540001707577"><ele>247.99999999999997</ele><time>2026-04-27T10:47:43.837Z</time></trkpt><trkpt lat="39.64398005609598" lon="8.546422620295733"><ele>246.0</ele><time>2026-04-27T10:47:44.837Z</time></trkpt><trkpt lat="39.64397229366549" lon="8.546317270262016"><ele>244.0</ele><time>2026-04-27T10:47:45.837Z</time></trkpt><trkpt lat="39.64395925189771" lon="8.54620139388406"><ele>243.79999999999998</ele><time>2026-04-27T10:47:46.837Z</time></trkpt><trkpt lat="39.64391561406795" lon="8.546089364311083"><ele>243.59999999999997</ele><time>2026-04-27T10:47:47.837Z</time></trkpt><trkpt lat="39.64385671071599" lon="8.545982506594187"><ele>243.4</ele><time>2026-04-27T10:47:48.837Z</time></trkpt><trkpt lat="39.64379233717372" lon="8.545900592577903"><ele>243.2</ele><time>2026-04-27T10:47:49.837Z</time></trkpt><trkpt lat="39.6437202346575" lon="8.545797467105867"><ele>243.0</ele><time>2026-04-27T10:47:50.837Z</time></trkpt><trkpt lat="39.64367113406534" lon="8.545722181440686"><ele>243.0</ele><time>2026-04-27T10:47:51.837Z</time></trkpt><trkpt lat="39.6436380734966" lon="8.545619701895776"><ele>243.0</ele><time>2026-04-27T10:47:53.837Z</time></trkpt><trkpt lat="39.643727383325476" lon="8.545497476166314"><ele>243.0</ele><time>2026-04-27T10:47:55.837Z</time></trkpt><trkpt lat="39.6438123595576" lon="8.545461878156983"><ele>243.0</ele><time>2026-04-27T10:47:56.837Z</time></trkpt><trkpt lat="39.64388751487481" lon="8.545423510652089"><ele>243.0</ele><time>2026-04-27T10:47:57.837Z</time></trkpt><trkpt lat="39.64396049175495" lon="8.545378456134681"><ele>245.0</ele><time>2026-04-27T10:47:58.837Z</time></trkpt><trkpt lat="39.644045168549994" lon="8.545328999590525"><ele>247.0</ele><time>2026-04-27T10:47:59.837Z</time></trkpt><trkpt lat="39.6441062633869" lon="8.545236267955524"><ele>249.0</ele><time>2026-04-27T10:48:00.837Z</time></trkpt><trkpt lat="39.6441420923717" lon="8.545139074544945"><ele>251.0</ele><time>2026-04-27T10:48:01.837Z</time></trkpt><trkpt lat="39.6441499749529" lon="8.545038980425897"><ele>253.0</ele><time>2026-04-27T10:48:02.837Z</time></trkpt><trkpt lat="39.64412782005758" lon="8.544949445190568"><ele>255.0</ele><time>2026-04-27T10:48:03.837Z</time></trkpt><trkpt lat="39.64410645732955" lon="8.54483967429094"><ele>255.0</ele><time>2026-04-27T10:48:04.837Z</time></trkpt><trkpt lat="39.64409822664788" lon="8.544742443361065"><ele>255.0</ele><time>2026-04-27T10:48:05.837Z</time></trkpt><trkpt lat="39.64418713727625" lon="8.54464647125333"><ele>255.0</ele><time>2026-04-27T10:48:07.837Z</time></trkpt><trkpt lat="39.644259991846205" lon="8.544650382233067"><ele>255.0</ele><time>2026-04-27T10:48:08.837Z</time></trkpt><trkpt lat="39.64433628314263" lon="8.544646600590072"><ele>255.0</ele><time>2026-04-27T10:48:09.837Z</time></trkpt><trkpt lat="39.64441664016252" lon="8.544673359231226"><ele>255.0</ele><time>2026-04-27T10:48:10.837Z</time></trkpt><trkpt lat="39.64450691083701" lon="8.54470340663328"><ele>255.6</ele><time>2026-04-27T10:48:11.837Z</time></trkpt><trkpt lat="39.64459840875336" lon="8.544724993812578"><ele>256.2</ele><time>2026-04-27T10:48:12.837Z</time></trkpt><trkpt lat="39.64469449585445" lon="8.54470877071524"><ele>256.8</ele><time>2026-04-27T10:48:13.837Z</time></trkpt><trkpt lat="39.644785677521185" lon="8.544668150809656"><ele>257.4</ele><time>2026-04-27T10:48:14.837Z</time></trkpt><trkpt lat="39.64485993382311" lon="8.544601892146394"><ele>258.0</ele><time>2026-04-27T10:48:15.837Z</time></trkpt><trkpt lat="39.64492637896695" lon="8.544518693953314"><ele>258.0</ele><time>2026-04-27T10:48:16.837Z</time></trkpt><trkpt lat="39.64498391447341" lon="8.544422587026123"><ele>258.0</ele><time>2026-04-27T10:48:17.837Z</time></trkpt><trkpt lat="39.64503472102897" lon="8.544309796059537"><ele>258.0</ele><time>2026-04-27T10:48:18.837Z</time></trkpt><trkpt lat="39.645072092236255" lon="8.544183467596707"><ele>258.0</ele><time>2026-04-27T10:48:19.837Z</time></trkpt><trkpt lat="39.6451132956413" lon="8.544044110173543"><ele>258.0</ele><time>2026-04-27T10:48:20.837Z</time></trkpt><trkpt lat="39.64516473843301" lon="8.54392885076388"><ele>258.0</ele><time>2026-04-27T10:48:21.837Z</time></trkpt><trkpt lat="39.6452097279688" lon="8.543793525974468"><ele>258.0</ele><time>2026-04-27T10:48:22.837Z</time></trkpt><trkpt lat="39.64524471042471" lon="8.543643115111607"><ele>258.0</ele><time>2026-04-27T10:48:23.837Z</time></trkpt><trkpt lat="39.64527235779696" lon="8.543491460972243"><ele>258.0</ele><time>2026-04-27T10:48:24.837Z</time></trkpt><trkpt lat="39.64529696706076" lon="8.543321048837297"><ele>259.25</ele><time>2026-04-27T10:48:25.837Z</time></trkpt><trkpt lat="39.64533156893243" lon="8.543165655958735"><ele>260.5</ele><time>2026-04-27T10:48:26.837Z</time></trkpt><trkpt lat="39.64537999681536" lon="8.54305132713702"><ele>261.75</ele><time>2026-04-27T10:48:27.837Z</time></trkpt><trkpt lat="39.645434295934535" lon="8.542916812412173"><ele>263.0</ele><time>2026-04-27T10:48:28.837Z</time></trkpt><trkpt lat="39.645476718406904" lon="8.542780166789049"><ele>263.0</ele><time>2026-04-27T10:48:29.837Z</time></trkpt><trkpt lat="39.64552252548199" lon="8.542640715156232"><ele>263.0</ele><time>2026-04-27T10:48:30.837Z</time></trkpt><trkpt lat="39.6455749860384" lon="8.542517337963199"><ele>263.0</ele><time>2026-04-27T10:48:31.837Z</time></trkpt><trkpt lat="39.645644808002935" lon="8.542435481558558"><ele>263.0</ele><time>2026-04-27T10:48:32.837Z</time></trkpt><trkpt lat="39.64570591906004" lon="8.54237704536279"><ele>263.0</ele><time>2026-04-27T10:48:33.837Z</time></trkpt><trkpt lat="39.645762646948995" lon="8.542327521071758"><ele>263.0</ele><time>2026-04-27T10:48:34.837Z</time></trkpt><trkpt lat="39.645816044619345" lon="8.542266988993308"><ele>263.0</ele><time>2026-04-27T10:48:35.837Z</time></trkpt><trkpt lat="39.64589513019253" lon="8.542262026978456"><ele>263.0</ele><time>2026-04-27T10:48:36.837Z</time></trkpt><trkpt lat="39.645964199492035" lon="8.542317501351134"><ele>263.0</ele><time>2026-04-27T10:48:38.837Z</time></trkpt><trkpt lat="39.64598148656673" lon="8.542455049249178"><ele>263.0</ele><time>2026-04-27T10:48:40.837Z</time></trkpt><trkpt lat="39.64598729684892" lon="8.542542151880845"><ele>263.0</ele><time>2026-04-27T10:48:41.837Z</time></trkpt><trkpt lat="39.64599898336567" lon="8.542668630204522"><ele>263.0</ele><time>2026-04-27T10:48:42.837Z</time></trkpt><trkpt lat="39.64601764554341" lon="8.542795851244856"><ele>263.0</ele><time>2026-04-27T10:48:43.837Z</time></trkpt><trkpt lat="39.64603919304679" lon="8.542937620466898"><ele>263.0</ele><time>2026-04-27T10:48:44.837Z</time></trkpt><trkpt lat="39.64606020788015" lon="8.543058562117015"><ele>263.0</ele><time>2026-04-27T10:48:45.837Z</time></trkpt><trkpt lat="39.646086734341395" lon="8.543166244155488"><ele>263.0</ele><time>2026-04-27T10:48:46.837Z</time></trkpt><trkpt lat="39.6461245325951" lon="8.543269279709115"><ele>261.4</ele><time>2026-04-27T10:48:47.837Z</time></trkpt><trkpt lat="39.64618440925073" lon="8.543382553169465"><ele>259.8</ele><time>2026-04-27T10:48:48.837Z</time></trkpt><trkpt lat="39.64624566774001" lon="8.543498277269714"><ele>258.2</ele><time>2026-04-27T10:48:49.837Z</time></trkpt><trkpt lat="39.64630381420748" lon="8.543623267385957"><ele>256.6</ele><time>2026-04-27T10:48:50.837Z</time></trkpt><trkpt lat="39.64637685332232" lon="8.543741895228285"><ele>255.0</ele><time>2026-04-27T10:48:51.837Z</time></trkpt><trkpt lat="39.646441000281044" lon="8.543868080590553"><ele>255.0</ele><time>2026-04-27T10:48:52.837Z</time></trkpt><trkpt lat="39.646483187549045" lon="8.54400932790327"><ele>255.0</ele><time>2026-04-27T10:48:53.837Z</time></trkpt><trkpt lat="39.6465334975258" lon="8.544124268687662"><ele>255.0</ele><time>2026-04-27T10:48:54.837Z</time></trkpt><trkpt lat="39.64659090987499" lon="8.544215075917547"><ele>255.0</ele><time>2026-04-27T10:48:55.837Z</time></trkpt><trkpt lat="39.64666238890017" lon="8.544276579104157"><ele>255.0</ele><time>2026-04-27T10:48:56.837Z</time></trkpt><trkpt lat="39.64672181068292" lon="8.544338095812297"><ele>255.0</ele><time>2026-04-27T10:48:57.837Z</time></trkpt><trkpt lat="39.646811937999445" lon="8.54435295875566"><ele>255.0</ele><time>2026-04-27T10:48:58.837Z</time></trkpt><trkpt lat="39.64690164033697" lon="8.54437897064321"><ele>255.0</ele><time>2026-04-27T10:48:59.837Z</time></trkpt><trkpt lat="39.64700816852135" lon="8.544391111613077"><ele>255.0</ele><time>2026-04-27T10:49:00.837Z</time></trkpt><trkpt lat="39.64711547743618" lon="8.544386631850681"><ele>255.0</ele><time>2026-04-27T10:49:01.837Z</time></trkpt><trkpt lat="39.64720598393395" lon="8.544386938349618"><ele>255.6</ele><time>2026-04-27T10:49:02.837Z</time></trkpt><trkpt lat="39.64727944672335" lon="8.544413399827997"><ele>256.2</ele><time>2026-04-27T10:49:03.837Z</time></trkpt><trkpt lat="39.647342981251626" lon="8.54454630372811"><ele>256.8</ele><time>2026-04-27T10:49:05.837Z</time></trkpt><trkpt lat="39.647374308929365" lon="8.544642357936768"><ele>257.4</ele><time>2026-04-27T10:49:06.837Z</time></trkpt><trkpt lat="39.647433775929805" lon="8.544740342767103"><ele>258.0</ele><time>2026-04-27T10:49:07.837Z</time></trkpt><trkpt lat="39.64748613440578" lon="8.544875108074619"><ele>258.0</ele><time>2026-04-27T10:49:08.837Z</time></trkpt><trkpt lat="39.64751363565787" lon="8.545017143586657"><ele>258.0</ele><time>2026-04-27T10:49:09.837Z</time></trkpt><trkpt lat="39.64754368523298" lon="8.545135128787336"><ele>258.0</ele><time>2026-04-27T10:49:10.837Z</time></trkpt><trkpt lat="39.64755461214236" lon="8.545253307022032"><ele>258.0</ele><time>2026-04-27T10:49:11.837Z</time></trkpt><trkpt lat="39.647545448666875" lon="8.545367629231958"><ele>258.0</ele><time>2026-04-27T10:49:12.837Z</time></trkpt><trkpt lat="39.64752592953809" lon="8.545485787610613"><ele>256.0</ele><time>2026-04-27T10:49:13.837Z</time></trkpt><trkpt lat="39.64752118432391" lon="8.545601744514475"><ele>254.0</ele><time>2026-04-27T10:49:14.837Z</time></trkpt><trkpt lat="39.647543898595444" lon="8.545725955983672"><ele>252.0</ele><time>2026-04-27T10:49:15.837Z</time></trkpt><trkpt lat="39.64759804152467" lon="8.545820370270825"><ele>250.0</ele><time>2026-04-27T10:49:16.837Z</time></trkpt><trkpt lat="39.64765029438178" lon="8.545925908655109"><ele>248.0</ele><time>2026-04-27T10:49:17.837Z</time></trkpt><trkpt lat="39.647707199328806" lon="8.546042686185285"><ele>248.0</ele><time>2026-04-27T10:49:18.837Z</time></trkpt><trkpt lat="39.647770751218744" lon="8.546167236760727"><ele>248.0</ele><time>2026-04-27T10:49:19.837Z</time></trkpt><trkpt lat="39.647819867511195" lon="8.546304700028069"><ele>248.0</ele><time>2026-04-27T10:49:20.837Z</time></trkpt><trkpt lat="39.64787642820819" lon="8.546418486799967"><ele>248.0</ele><time>2026-04-27T10:49:21.837Z</time></trkpt><trkpt lat="39.64794820464711" lon="8.546522268915364"><ele>248.0</ele><time>2026-04-27T10:49:22.837Z</time></trkpt><trkpt lat="39.64801024858229" lon="8.546634912696192"><ele>248.50000000000003</ele><time>2026-04-27T10:49:23.837Z</time></trkpt><trkpt lat="39.648072557130995" lon="8.54671800891307"><ele>249.0</ele><time>2026-04-27T10:49:24.837Z</time></trkpt><trkpt lat="39.64814138958343" lon="8.546765770552872"><ele>249.5</ele><time>2026-04-27T10:49:25.837Z</time></trkpt><trkpt lat="39.64820610761783" lon="8.54678624800865"><ele>250.0</ele><time>2026-04-27T10:49:26.835Z</time></trkpt><trkpt lat="39.64827906720224" lon="8.546787664945835"><ele>250.50000000000003</ele><time>2026-04-27T10:49:27.835Z</time></trkpt><trkpt lat="39.64837039808253" lon="8.546781372668988"><ele>251.0</ele><time>2026-04-27T10:49:28.835Z</time></trkpt><trkpt lat="39.648471671214395" lon="8.546758177564282"><ele>251.0</ele><time>2026-04-27T10:49:29.835Z</time></trkpt><trkpt lat="39.648576114532474" lon="8.546731127704497"><ele>251.00000000000003</ele><time>2026-04-27T10:49:30.836Z</time></trkpt><trkpt lat="39.64868701555465" lon="8.546715603169167"><ele>251.00000000000003</ele><time>2026-04-27T10:49:31.836Z</time></trkpt><trkpt lat="39.64879227613725" lon="8.546707706052004"><ele>251.0</ele><time>2026-04-27T10:49:32.835Z</time></trkpt><trkpt lat="39.64890001513974" lon="8.546722121310005"><ele>251.0</ele><time>2026-04-27T10:49:33.835Z</time></trkpt><trkpt lat="39.64901099523886" lon="8.546745547178752"><ele>251.5</ele><time>2026-04-27T10:49:34.835Z</time></trkpt><trkpt lat="39.64912671008496" lon="8.546756567698498"><ele>252.0</ele><time>2026-04-27T10:49:35.835Z</time></trkpt><trkpt lat="39.649251641576" lon="8.546756582577252"><ele>252.5</ele><time>2026-04-27T10:49:36.835Z</time></trkpt><trkpt lat="39.64937136259188" lon="8.546741271076549"><ele>253.0</ele><time>2026-04-27T10:49:37.835Z</time></trkpt><trkpt lat="39.64947991535462" lon="8.54672014676584"><ele>253.0</ele><time>2026-04-27T10:49:38.835Z</time></trkpt><trkpt lat="39.64959320522856" lon="8.54668910278814"><ele>253.0</ele><time>2026-04-27T10:49:39.835Z</time></trkpt><trkpt lat="39.64971818107724" lon="8.546658252098538"><ele>253.0</ele><time>2026-04-27T10:49:40.835Z</time></trkpt><trkpt lat="39.64983726091512" lon="8.546623837540087"><ele>253.0</ele><time>2026-04-27T10:49:41.835Z</time></trkpt><trkpt lat="39.6499383650305" lon="8.546611471108687"><ele>253.0</ele><time>2026-04-27T10:49:42.835Z</time></trkpt><trkpt lat="39.65003257466355" lon="8.546579221684889"><ele>253.0</ele><time>2026-04-27T10:49:43.835Z</time></trkpt><trkpt lat="39.650116300468476" lon="8.546534954557629"><ele>253.0</ele><time>2026-04-27T10:49:44.835Z</time></trkpt><trkpt lat="39.65018586809384" lon="8.546536955019624"><ele>253.0</ele><time>2026-04-27T10:49:45.835Z</time></trkpt><trkpt lat="39.6502898258847" lon="8.546650376020068"><ele>253.0</ele><time>2026-04-27T10:49:47.835Z</time></trkpt><trkpt lat="39.65033382218922" lon="8.546736600456759"><ele>254.16666666666666</ele><time>2026-04-27T10:49:48.835Z</time></trkpt><trkpt lat="39.65038606262901" lon="8.546824213557644"><ele>255.33333333333331</ele><time>2026-04-27T10:49:49.835Z</time></trkpt><trkpt lat="39.65044445496434" lon="8.546892304538702"><ele>256.5</ele><time>2026-04-27T10:49:50.835Z</time></trkpt><trkpt lat="39.65049605223045" lon="8.546971669557816"><ele>257.6666666666667</ele><time>2026-04-27T10:49:51.835Z</time></trkpt><trkpt lat="39.65058300412072" lon="8.54700794311252"><ele>258.83333333333337</ele><time>2026-04-27T10:49:52.835Z</time></trkpt><trkpt lat="39.65066972496842" lon="8.546968330648365"><ele>260.0</ele><time>2026-04-27T10:49:53.835Z</time></trkpt><trkpt lat="39.65076046188246" lon="8.546940621950348"><ele>260.0</ele><time>2026-04-27T10:49:54.835Z</time></trkpt><trkpt lat="39.65085855663456" lon="8.546930985156491"><ele>260.0</ele><time>2026-04-27T10:49:55.835Z</time></trkpt><trkpt lat="39.6509518450368" lon="8.546918527519432"><ele>260.0</ele><time>2026-04-27T10:49:56.835Z</time></trkpt><trkpt lat="39.65104772513142" lon="8.54691405898011"><ele>260.0</ele><time>2026-04-27T10:49:57.835Z</time></trkpt><trkpt lat="39.651142294240394" lon="8.546925564328284"><ele>260.0</ele><time>2026-04-27T10:49:58.835Z</time></trkpt><trkpt lat="39.65122137817185" lon="8.546974894635287"><ele>256.2</ele><time>2026-04-27T10:49:59.835Z</time></trkpt><trkpt lat="39.651278762517784" lon="8.547044804799038"><ele>252.4</ele><time>2026-04-27T10:50:00.835Z</time></trkpt><trkpt lat="39.65133078250087" lon="8.547122962795065"><ele>248.60000000000002</ele><time>2026-04-27T10:50:01.835Z</time></trkpt><trkpt lat="39.65138291887382" lon="8.547213356111262"><ele>244.8</ele><time>2026-04-27T10:50:02.835Z</time></trkpt><trkpt lat="39.65148676103966" lon="8.547351537154466"><ele>241.0</ele><time>2026-04-27T10:50:03.835Z</time></trkpt><trkpt lat="39.65161984947616" lon="8.547462933854188"><ele>241.0</ele><time>2026-04-27T10:50:04.835Z</time></trkpt><trkpt lat="39.651598780345644" lon="8.547372463243384"><ele>241.00000000000003</ele><time>2026-04-27T10:50:05.835Z</time></trkpt><trkpt lat="39.65168811468251" lon="8.547350794397818"><ele>241.00000000000003</ele><time>2026-04-27T10:50:06.835Z</time></trkpt><trkpt lat="39.651781207392574" lon="8.547349424366852"><ele>241.0</ele><time>2026-04-27T10:50:07.835Z</time></trkpt><trkpt lat="39.65188520135995" lon="8.547338405846121"><ele>241.0</ele><time>2026-04-27T10:50:08.835Z</time></trkpt><trkpt lat="39.65199003805286" lon="8.547325047655404"><ele>240.0</ele><time>2026-04-27T10:50:09.835Z</time></trkpt><trkpt lat="39.652097368024826" lon="8.547308278531517"><ele>239.0</ele><time>2026-04-27T10:50:10.835Z</time></trkpt><trkpt lat="39.65221478691976" lon="8.547288850273553"><ele>238.0</ele><time>2026-04-27T10:50:11.835Z</time></trkpt><trkpt lat="39.652326410449994" lon="8.547256878152135"><ele>237.0</ele><time>2026-04-27T10:50:12.835Z</time></trkpt><trkpt lat="39.65244173130148" lon="8.547223644052794"><ele>237.0</ele><time>2026-04-27T10:50:13.835Z</time></trkpt><trkpt lat="39.65254874651641" lon="8.547183972330746"><ele>237.0</ele><time>2026-04-27T10:50:14.835Z</time></trkpt><trkpt lat="39.652648002927315" lon="8.547126486864826"><ele>237.0</ele><time>2026-04-27T10:50:15.835Z</time></trkpt><trkpt lat="39.652726616647136" lon="8.547055122976714"><ele>237.0</ele><time>2026-04-27T10:50:16.835Z</time></trkpt><trkpt lat="39.65280338763155" lon="8.546966130267311"><ele>237.0</ele><time>2026-04-27T10:50:17.835Z</time></trkpt><trkpt lat="39.652853328265564" lon="8.546855382923308"><ele>238.8</ele><time>2026-04-27T10:50:18.835Z</time></trkpt><trkpt lat="39.652928873257565" lon="8.546740474587972"><ele>240.6</ele><time>2026-04-27T10:50:19.835Z</time></trkpt><trkpt lat="39.65300160599832" lon="8.546635374419095"><ele>242.40000000000003</ele><time>2026-04-27T10:50:20.835Z</time></trkpt><trkpt lat="39.65306833397334" lon="8.546520629795316"><ele>244.20000000000002</ele><time>2026-04-27T10:50:21.835Z</time></trkpt><trkpt lat="39.65310576397419" lon="8.546425227701492"><ele>246.0</ele><time>2026-04-27T10:50:22.835Z</time></trkpt><trkpt lat="39.65313284142364" lon="8.546318219453358"><ele>246.0</ele><time>2026-04-27T10:50:23.835Z</time></trkpt><trkpt lat="39.65314402675638" lon="8.546202689336706"><ele>246.0</ele><time>2026-04-27T10:50:24.835Z</time></trkpt><trkpt lat="39.653159286260596" lon="8.546119971324593"><ele>246.0</ele><time>2026-04-27T10:50:25.835Z</time></trkpt><trkpt lat="39.653210013497684" lon="8.546030241713662"><ele>246.0</ele><time>2026-04-27T10:50:27.835Z</time></trkpt><trkpt lat="39.65330395245312" lon="8.546091974477564"><ele>246.0</ele><time>2026-04-27T10:50:29.835Z</time></trkpt><trkpt lat="39.653354227370635" lon="8.546172872716848"><ele>246.0</ele><time>2026-04-27T10:50:30.835Z</time></trkpt><trkpt lat="39.653403819747204" lon="8.546255059429209"><ele>246.0</ele><time>2026-04-27T10:50:31.835Z</time></trkpt><trkpt lat="39.65343902471941" lon="8.546352790016284"><ele>246.0</ele><time>2026-04-27T10:50:32.838Z</time></trkpt><trkpt lat="39.65346056575232" lon="8.546459879567468"><ele>246.0</ele><time>2026-04-27T10:50:33.84Z</time></trkpt><trkpt lat="39.653468688399265" lon="8.546574176383396"><ele>246.0</ele><time>2026-04-27T10:50:34.842Z</time></trkpt><trkpt lat="39.653455252158054" lon="8.546674499883167"><ele>246.0</ele><time>2026-04-27T10:50:35.844Z</time></trkpt><trkpt lat="39.65344467820653" lon="8.546796254691662"><ele>246.0</ele><time>2026-04-27T10:50:36.846Z</time></trkpt><trkpt lat="39.65343807775341" lon="8.546911541386212"><ele>246.0</ele><time>2026-04-27T10:50:37.848Z</time></trkpt><trkpt lat="39.65344862979776" lon="8.547029036649851"><ele>246.00000000000003</ele><time>2026-04-27T10:50:38.849Z</time></trkpt><trkpt lat="39.65345206259109" lon="8.547166117455866"><ele>246.00000000000003</ele><time>2026-04-27T10:50:39.851Z</time></trkpt><trkpt lat="39.65346075736242" lon="8.547309652060218"><ele>246.0</ele><time>2026-04-27T10:50:40.852Z</time></trkpt><trkpt lat="39.65346913833552" lon="8.547453782084341"><ele>246.0</ele><time>2026-04-27T10:50:41.854Z</time></trkpt><trkpt lat="39.65343956055016" lon="8.547596664013332"><ele>245.0</ele><time>2026-04-27T10:50:42.855Z</time></trkpt><trkpt lat="39.65341873552958" lon="8.547740465702212"><ele>244.00000000000003</ele><time>2026-04-27T10:50:43.856Z</time></trkpt><trkpt lat="39.65339327954404" lon="8.547868150489556"><ele>243.00000000000003</ele><time>2026-04-27T10:50:44.857Z</time></trkpt><trkpt lat="39.65335442304841" lon="8.548000684103085"><ele>242.0</ele><time>2026-04-27T10:50:45.858Z</time></trkpt><trkpt lat="39.65332053947304" lon="8.54812745276851"><ele>241.0</ele><time>2026-04-27T10:50:46.859Z</time></trkpt><trkpt lat="39.65330794559751" lon="8.548209829148567"><ele>240.8</ele><time>2026-04-27T10:50:47.86Z</time></trkpt><trkpt lat="39.65332210234118" lon="8.548334964136965"><ele>240.60000000000002</ele><time>2026-04-27T10:50:49.862Z</time></trkpt><trkpt lat="39.65342996983068" lon="8.548333289950069"><ele>240.4</ele><time>2026-04-27T10:50:51.863Z</time></trkpt><trkpt lat="39.65353702487907" lon="8.548291003227787"><ele>240.2</ele><time>2026-04-27T10:51:04.87Z</time></trkpt><trkpt lat="39.653618442191465" lon="8.548202633679127"><ele>240.0</ele><time>2026-04-27T10:51:06.87Z</time></trkpt><trkpt lat="39.653672710501496" lon="8.5480962272783"><ele>242.0</ele><time>2026-04-27T10:51:08.871Z</time></trkpt><trkpt lat="39.65373925000214" lon="8.548011845669539"><ele>244.0</ele><time>2026-04-27T10:51:10.871Z</time></trkpt><trkpt lat="39.65381547887792" lon="8.547920096863326"><ele>246.0</ele><time>2026-04-27T10:51:12.871Z</time></trkpt><trkpt lat="39.65388079645339" lon="8.54785186947654"><ele>248.0</ele><time>2026-04-27T10:51:14.872Z</time></trkpt><trkpt lat="39.65397859866917" lon="8.547783070799344"><ele>250.0</ele><time>2026-04-27T10:51:26.873Z</time></trkpt><trkpt lat="39.65408785093773" lon="8.547721269137458"><ele>249.99999999999997</ele><time>2026-04-27T10:51:28.873Z</time></trkpt><trkpt lat="39.65415462773947" lon="8.54772687164606"><ele>250.0</ele><time>2026-04-27T10:51:29.873Z</time></trkpt><trkpt lat="39.65423004093857" lon="8.547714676216533"><ele>250.0</ele><time>2026-04-27T10:51:30.873Z</time></trkpt><trkpt lat="39.65430322499255" lon="8.547703098953995"><ele>250.0</ele><time>2026-04-27T10:51:31.872Z</time></trkpt><trkpt lat="39.65438296648369" lon="8.547693083730833"><ele>249.99999999999997</ele><time>2026-04-27T10:51:32.872Z</time></trkpt><trkpt lat="39.65446608634766" lon="8.547688275508566"><ele>250.0</ele><time>2026-04-27T10:51:33.872Z</time></trkpt><trkpt lat="39.65455653624895" lon="8.54768568400537"><ele>249.49999999999997</ele><time>2026-04-27T10:51:34.873Z</time></trkpt><trkpt lat="39.65464020627635" lon="8.547667040850005"><ele>249.0</ele><time>2026-04-27T10:51:35.872Z</time></trkpt><trkpt lat="39.65472113422141" lon="8.54768720920198"><ele>248.5</ele><time>2026-04-27T10:51:36.872Z</time></trkpt><trkpt lat="39.65480005736005" lon="8.547688839394548"><ele>248.0</ele><time>2026-04-27T10:51:37.872Z</time></trkpt><trkpt lat="39.65490069740024" lon="8.547694530416262"><ele>247.49999999999997</ele><time>2026-04-27T10:51:38.873Z</time></trkpt><trkpt lat="39.65499369875254" lon="8.547684136374874"><ele>247.0</ele><time>2026-04-27T10:51:39.873Z</time></trkpt><trkpt lat="39.655080023001425" lon="8.547691488980707"><ele>246.99999999999997</ele><time>2026-04-27T10:51:40.872Z</time></trkpt><trkpt lat="39.65515716746225" lon="8.547685857482222"><ele>247.0</ele><time>2026-04-27T10:51:41.872Z</time></trkpt><trkpt lat="39.655242735750825" lon="8.547669944963717"><ele>247.0</ele><time>2026-04-27T10:51:42.872Z</time></trkpt><trkpt lat="39.655330619998786" lon="8.547645447116542"><ele>247.0</ele><time>2026-04-27T10:51:43.872Z</time></trkpt><trkpt lat="39.65541564700891" lon="8.547615268371683"><ele>246.99999999999997</ele><time>2026-04-27T10:51:44.872Z</time></trkpt><trkpt lat="39.65549323120034" lon="8.547573586939853"><ele>247.0</ele><time>2026-04-27T10:51:45.872Z</time></trkpt><trkpt lat="39.65556066147861" lon="8.547518806952612"><ele>245.66666666666666</ele><time>2026-04-27T10:51:46.872Z</time></trkpt><trkpt lat="39.65561943643245" lon="8.54744343708001"><ele>244.33333333333331</ele><time>2026-04-27T10:51:47.872Z</time></trkpt><trkpt lat="39.65567442645836" lon="8.547357735737027"><ele>243.0</ele><time>2026-04-27T10:51:48.872Z</time></trkpt><trkpt lat="39.65572284460417" lon="8.547263739466475"><ele>241.66666666666669</ele><time>2026-04-27T10:51:49.872Z</time></trkpt><trkpt lat="39.655767673631466" lon="8.547160065670274"><ele>240.33333333333334</ele><time>2026-04-27T10:51:50.872Z</time></trkpt><trkpt lat="39.65580062525153" lon="8.547039357825238"><ele>239.0</ele><time>2026-04-27T10:51:51.872Z</time></trkpt><trkpt lat="39.65583184506747" lon="8.54691979957553"><ele>239.0</ele><time>2026-04-27T10:51:52.872Z</time></trkpt><trkpt lat="39.65586911591732" lon="8.546812719517577"><ele>238.99999999999997</ele><time>2026-04-27T10:51:53.872Z</time></trkpt><trkpt lat="39.65591589429951" lon="8.546709188760826"><ele>238.99999999999997</ele><time>2026-04-27T10:51:54.872Z</time></trkpt><trkpt lat="39.655974807618236" lon="8.546618134551204"><ele>239.0</ele><time>2026-04-27T10:51:55.872Z</time></trkpt><trkpt lat="39.65606213297576" lon="8.546548870845204"><ele>239.0</ele><time>2026-04-27T10:51:56.872Z</time></trkpt><trkpt lat="39.65613252278497" lon="8.54646482833554"><ele>236.39999999999998</ele><time>2026-04-27T10:51:57.872Z</time></trkpt><trkpt lat="39.65621155673699" lon="8.546402896610877"><ele>233.79999999999998</ele><time>2026-04-27T10:51:58.872Z</time></trkpt><trkpt lat="39.65629030487092" lon="8.546335566375673"><ele>231.20000000000002</ele><time>2026-04-27T10:51:59.872Z</time></trkpt><trkpt lat="39.65636367500326" lon="8.546252335315751"><ele>228.60000000000002</ele><time>2026-04-27T10:52:00.872Z</time></trkpt><trkpt lat="39.65643477607927" lon="8.546155644427001"><ele>226.0</ele><time>2026-04-27T10:52:01.872Z</time></trkpt><trkpt lat="39.656490388763885" lon="8.54605106693931"><ele>226.0</ele><time>2026-04-27T10:52:02.872Z</time></trkpt><trkpt lat="39.65652514753519" lon="8.545930337219355"><ele>226.00000000000003</ele><time>2026-04-27T10:52:03.872Z</time></trkpt><trkpt lat="39.65656935522226" lon="8.545808746428289"><ele>226.00000000000003</ele><time>2026-04-27T10:52:04.872Z</time></trkpt><trkpt lat="39.65661390620548" lon="8.545704109282653"><ele>226.0</ele><time>2026-04-27T10:52:05.872Z</time></trkpt><trkpt lat="39.656680980744994" lon="8.545598263688698"><ele>226.0</ele><time>2026-04-27T10:52:06.872Z</time></trkpt><trkpt lat="39.656725968976026" lon="8.545507078698828"><ele>225.99999999999997</ele><time>2026-04-27T10:52:07.872Z</time></trkpt><trkpt lat="39.65680817559908" lon="8.545422315459117"><ele>226.0</ele><time>2026-04-27T10:52:09.872Z</time></trkpt><trkpt lat="39.656897241493596" lon="8.545440823117964"><ele>226.0</ele><time>2026-04-27T10:52:11.872Z</time></trkpt><trkpt lat="39.65693676547987" lon="8.545530366356905"><ele>226.0</ele><time>2026-04-27T10:52:12.873Z</time></trkpt><trkpt lat="39.657004029872084" lon="8.545586268012265"><ele>225.99999999999997</ele><time>2026-04-27T10:52:13.873Z</time></trkpt><trkpt lat="39.65706753397642" lon="8.54565209693049"><ele>226.0</ele><time>2026-04-27T10:52:14.873Z</time></trkpt><trkpt lat="39.65712264234274" lon="8.54572141590709"><ele>224.33333333333331</ele><time>2026-04-27T10:52:15.873Z</time></trkpt><trkpt lat="39.6572004303806" lon="8.545755809382705"><ele>222.66666666666666</ele><time>2026-04-27T10:52:16.873Z</time></trkpt><trkpt lat="39.657281644734155" lon="8.545714247040664"><ele>221.0</ele><time>2026-04-27T10:52:17.873Z</time></trkpt><trkpt lat="39.65734256771723" lon="8.545637185259999"><ele>219.33333333333331</ele><time>2026-04-27T10:52:18.873Z</time></trkpt><trkpt lat="39.65740694955931" lon="8.545554494330823"><ele>217.66666666666666</ele><time>2026-04-27T10:52:19.873Z</time></trkpt><trkpt lat="39.65747988480666" lon="8.54547321412747"><ele>216.0</ele><time>2026-04-27T10:52:20.873Z</time></trkpt><trkpt lat="39.657543431431634" lon="8.545380491223808"><ele>214.20000000000002</ele><time>2026-04-27T10:52:21.873Z</time></trkpt><trkpt lat="39.65762006059863" lon="8.54528099506254"><ele>212.40000000000003</ele><time>2026-04-27T10:52:22.873Z</time></trkpt><trkpt lat="39.657690167070335" lon="8.54517036084978"><ele>210.6</ele><time>2026-04-27T10:52:23.873Z</time></trkpt><trkpt lat="39.657766968633496" lon="8.545060082954215"><ele>208.8</ele><time>2026-04-27T10:52:24.873Z</time></trkpt><trkpt lat="39.65785273646564" lon="8.544963533995325"><ele>207.0</ele><time>2026-04-27T10:52:25.873Z</time></trkpt><trkpt lat="39.65789841666841" lon="8.544835230635924"><ele>207.0</ele><time>2026-04-27T10:52:26.873Z</time></trkpt><trkpt lat="39.65795461682945" lon="8.544733416130738"><ele>207.0</ele><time>2026-04-27T10:52:27.873Z</time></trkpt><trkpt lat="39.65795237110899" lon="8.544606876336582"><ele>207.0</ele><time>2026-04-27T10:52:28.873Z</time></trkpt><trkpt lat="39.657946540571444" lon="8.544485686232868"><ele>207.0</ele><time>2026-04-27T10:52:29.873Z</time></trkpt><trkpt lat="39.65794215654536" lon="8.544353052831605"><ele>207.0</ele><time>2026-04-27T10:52:30.873Z</time></trkpt><trkpt lat="39.65792711668503" lon="8.544221012159388"><ele>208.0</ele><time>2026-04-27T10:52:31.873Z</time></trkpt><trkpt lat="39.657945956177024" lon="8.544076119795275"><ele>209.0</ele><time>2026-04-27T10:52:32.873Z</time></trkpt><trkpt lat="39.65795309672116" lon="8.54393421514201"><ele>210.0</ele><time>2026-04-27T10:52:33.873Z</time></trkpt><trkpt lat="39.65793726783455" lon="8.543808866038551"><ele>211.0</ele><time>2026-04-27T10:52:34.873Z</time></trkpt><trkpt lat="39.65793368455784" lon="8.543705319556942"><ele>212.0</ele><time>2026-04-27T10:52:35.873Z</time></trkpt><trkpt lat="39.65792773567581" lon="8.543596186357654"><ele>212.2</ele><time>2026-04-27T10:52:36.873Z</time></trkpt><trkpt lat="39.65788267076379" lon="8.543493659883975"><ele>212.39999999999998</ele><time>2026-04-27T10:52:37.873Z</time></trkpt><trkpt lat="39.65784765457288" lon="8.543406722491447"><ele>212.60000000000002</ele><time>2026-04-27T10:52:38.873Z</time></trkpt><trkpt lat="39.65782952332066" lon="8.543287446494949"><ele>212.8</ele><time>2026-04-27T10:52:40.873Z</time></trkpt><trkpt lat="39.65792833463867" lon="8.543153499092103"><ele>213.0</ele><time>2026-04-27T10:52:42.873Z</time></trkpt><trkpt lat="39.65799223732531" lon="8.543078176820622"><ele>213.0</ele><time>2026-04-27T10:52:43.873Z</time></trkpt><trkpt lat="39.65806793553196" lon="8.542986753057322"><ele>213.0</ele><time>2026-04-27T10:52:44.873Z</time></trkpt><trkpt lat="39.65814848889185" lon="8.542876273763829"><ele>213.0</ele><time>2026-04-27T10:52:45.873Z</time></trkpt><trkpt lat="39.65821139550211" lon="8.542740894694028"><ele>213.0</ele><time>2026-04-27T10:52:47.873Z</time></trkpt><trkpt lat="39.65826053413882" lon="8.542653854212878"><ele>213.0</ele><time>2026-04-27T10:52:48.873Z</time></trkpt><trkpt lat="39.65828743916638" lon="8.542547164816185"><ele>214.4</ele><time>2026-04-27T10:52:49.873Z</time></trkpt><trkpt lat="39.65828007926146" lon="8.542425573356264"><ele>215.8</ele><time>2026-04-27T10:52:50.873Z</time></trkpt><trkpt lat="39.65827483666641" lon="8.542316614938576"><ele>217.2</ele><time>2026-04-27T10:52:51.873Z</time></trkpt><trkpt lat="39.65825352911495" lon="8.542194274123467"><ele>218.6</ele><time>2026-04-27T10:52:52.873Z</time></trkpt><trkpt lat="39.658231461221796" lon="8.542067537774475"><ele>220.0</ele><time>2026-04-27T10:52:53.873Z</time></trkpt><trkpt lat="39.65822406517369" lon="8.541945855075733"><ele>221.83333333333331</ele><time>2026-04-27T10:52:54.873Z</time></trkpt><trkpt lat="39.65822751746122" lon="8.541827720688218"><ele>223.66666666666666</ele><time>2026-04-27T10:52:56.873Z</time></trkpt><trkpt lat="39.658288547279895" lon="8.541807471309014"><ele>225.5</ele><time>2026-04-27T10:52:58.873Z</time></trkpt><trkpt lat="39.6583589468032" lon="8.541835732100484"><ele>227.33333333333331</ele><time>2026-04-27T10:53:00.873Z</time></trkpt><trkpt lat="39.65842874860622" lon="8.541861958036664"><ele>229.16666666666666</ele><time>2026-04-27T10:53:01.873Z</time></trkpt><trkpt lat="39.658504478230434" lon="8.541889491328774"><ele>231.0</ele><time>2026-04-27T10:53:02.873Z</time></trkpt><trkpt lat="39.6585691935052" lon="8.541958481436716"><ele>233.4</ele><time>2026-04-27T10:53:03.873Z</time></trkpt><trkpt lat="39.65864774415284" lon="8.542010641337564"><ele>235.8</ele><time>2026-04-27T10:53:04.873Z</time></trkpt><trkpt lat="39.658743805532374" lon="8.542077367748325"><ele>238.20000000000002</ele><time>2026-04-27T10:53:05.873Z</time></trkpt><trkpt lat="39.65883849113732" lon="8.542144621865427"><ele>240.60000000000002</ele><time>2026-04-27T10:53:06.873Z</time></trkpt><trkpt lat="39.65891404943242" lon="8.542247290916023"><ele>243.0</ele><time>2026-04-27T10:53:07.873Z</time></trkpt><trkpt lat="39.65900394958932" lon="8.542378444686065"><ele>238.0</ele><time>2026-04-27T10:53:08.873Z</time></trkpt><trkpt lat="39.65906192620677" lon="8.542483225887928"><ele>233.0</ele><time>2026-04-27T10:53:09.873Z</time></trkpt><trkpt lat="39.65912401094579" lon="8.54258995684839"><ele>228.0</ele><time>2026-04-27T10:53:10.873Z</time></trkpt><trkpt lat="39.65919447135933" lon="8.542672312926616"><ele>223.0</ele><time>2026-04-27T10:53:11.873Z</time></trkpt><trkpt lat="39.65924536000764" lon="8.542770037584944"><ele>218.0</ele><time>2026-04-27T10:53:12.873Z</time></trkpt><trkpt lat="39.65929763568157" lon="8.542845670819272"><ele>214.83333333333334</ele><time>2026-04-27T10:53:13.873Z</time></trkpt><trkpt lat="39.659353026320986" lon="8.542896036121931"><ele>211.66666666666669</ele><time>2026-04-27T10:53:14.873Z</time></trkpt><trkpt lat="39.6594205120535" lon="8.542921834280685"><ele>208.5</ele><time>2026-04-27T10:53:15.873Z</time></trkpt><trkpt lat="39.65950510272581" lon="8.542931901700877"><ele>205.33333333333331</ele><time>2026-04-27T10:53:16.873Z</time></trkpt><trkpt lat="39.65959471337298" lon="8.542959852874072"><ele>202.16666666666666</ele><time>2026-04-27T10:53:17.873Z</time></trkpt><trkpt lat="39.659687505364886" lon="8.542950517952779"><ele>199.0</ele><time>2026-04-27T10:53:18.873Z</time></trkpt><trkpt lat="39.65978532080332" lon="8.542927044389707"><ele>202.2</ele><time>2026-04-27T10:53:19.873Z</time></trkpt><trkpt lat="39.659866445999555" lon="8.542879302798273"><ele>205.39999999999998</ele><time>2026-04-27T10:53:20.873Z</time></trkpt><trkpt lat="39.659936533441105" lon="8.542841964024243"><ele>208.6</ele><time>2026-04-27T10:53:21.873Z</time></trkpt><trkpt lat="39.66001619648799" lon="8.542788685239088"><ele>211.8</ele><time>2026-04-27T10:53:22.873Z</time></trkpt><trkpt lat="39.66008916609292" lon="8.542709129754199"><ele>215.0</ele><time>2026-04-27T10:53:23.873Z</time></trkpt><trkpt lat="39.66017378876749" lon="8.542639210159681"><ele>215.0</ele><time>2026-04-27T10:53:24.873Z</time></trkpt><trkpt lat="39.660257035082616" lon="8.542546991276204"><ele>215.0</ele><time>2026-04-27T10:53:25.873Z</time></trkpt><trkpt lat="39.66033801762344" lon="8.542462840477532"><ele>215.0</ele><time>2026-04-27T10:53:26.873Z</time></trkpt><trkpt lat="39.66041841047647" lon="8.54240507058863"><ele>215.0</ele><time>2026-04-27T10:53:27.873Z</time></trkpt><trkpt lat="39.66048200784693" lon="8.542378377900375"><ele>215.0</ele><time>2026-04-27T10:53:28.873Z</time></trkpt><trkpt lat="39.66059527360231" lon="8.542390064981788"><ele>214.16666666666669</ele><time>2026-04-27T10:53:30.873Z</time></trkpt><trkpt lat="39.66065213183288" lon="8.542510364884668"><ele>213.33333333333334</ele><time>2026-04-27T10:53:32.873Z</time></trkpt><trkpt lat="39.66067639575938" lon="8.542601267150244"><ele>212.5</ele><time>2026-04-27T10:53:33.873Z</time></trkpt><trkpt lat="39.660694409770535" lon="8.54270490238864"><ele>211.66666666666669</ele><time>2026-04-27T10:53:34.873Z</time></trkpt><trkpt lat="39.660729354735395" lon="8.54279173978044"><ele>210.83333333333334</ele><time>2026-04-27T10:53:35.873Z</time></trkpt><trkpt lat="39.66077725071089" lon="8.542867082956596"><ele>210.0</ele><time>2026-04-27T10:53:36.873Z</time></trkpt><trkpt lat="39.6608457521719" lon="8.542924277491743"><ele>206.6</ele><time>2026-04-27T10:53:37.872Z</time></trkpt><trkpt lat="39.660921874710766" lon="8.542956361514614"><ele>203.2</ele><time>2026-04-27T10:53:38.872Z</time></trkpt><trkpt lat="39.66100782288612" lon="8.542984533184905"><ele>199.8</ele><time>2026-04-27T10:53:39.872Z</time></trkpt><trkpt lat="39.661112704846516" lon="8.542979689278875"><ele>196.4</ele><time>2026-04-27T10:53:40.872Z</time></trkpt><trkpt lat="39.66121314051521" lon="8.543004427530274"><ele>193.0</ele><time>2026-04-27T10:53:41.872Z</time></trkpt><trkpt lat="39.6613286582313" lon="8.543027211165517"><ele>192.8</ele><time>2026-04-27T10:53:42.872Z</time></trkpt><trkpt lat="39.66143381434875" lon="8.543044004262054"><ele>192.60000000000002</ele><time>2026-04-27T10:53:43.872Z</time></trkpt><trkpt lat="39.66153340663069" lon="8.543028794838914"><ele>192.39999999999998</ele><time>2026-04-27T10:53:44.872Z</time></trkpt><trkpt lat="39.66162651583895" lon="8.543013813985732"><ele>192.2</ele><time>2026-04-27T10:53:45.872Z</time></trkpt><trkpt lat="39.661717509462036" lon="8.542980230715552"><ele>192.0</ele><time>2026-04-27T10:53:46.872Z</time></trkpt><trkpt lat="39.661820588067606" lon="8.542949631161132"><ele>192.0</ele><time>2026-04-27T10:53:47.872Z</time></trkpt><trkpt lat="39.6619230782123" lon="8.542914356382635"><ele>192.0</ele><time>2026-04-27T10:53:48.872Z</time></trkpt><trkpt lat="39.662035472052914" lon="8.542879215522962"><ele>192.0</ele><time>2026-04-27T10:53:49.872Z</time></trkpt><trkpt lat="39.66215219587338" lon="8.542855325629523"><ele>192.0</ele><time>2026-04-27T10:53:50.872Z</time></trkpt><trkpt lat="39.662256069429034" lon="8.542871471677268"><ele>192.0</ele><time>2026-04-27T10:53:51.872Z</time></trkpt><trkpt lat="39.662362172015094" lon="8.542816365471133"><ele>193.39999999999998</ele><time>2026-04-27T10:53:52.872Z</time></trkpt><trkpt lat="39.66243281506121" lon="8.542803257838527"><ele>194.79999999999998</ele><time>2026-04-27T10:53:53.872Z</time></trkpt><trkpt lat="39.66247009784619" lon="8.542871471677207"><ele>196.2</ele><time>2026-04-27T10:53:54.872Z</time></trkpt><trkpt lat="39.66250534650966" lon="8.542627633685766"><ele>197.6</ele><time>2026-04-27T10:53:55.872Z</time></trkpt><trkpt lat="39.66252971029521" lon="8.54254825715912"><ele>199.0</ele><time>2026-04-27T10:53:57.872Z</time></trkpt><trkpt lat="39.66258850637288" lon="8.542467229930278"><ele>198.99999999999997</ele><time>2026-04-27T10:53:59.872Z</time></trkpt><trkpt lat="39.66264724232913" lon="8.542437340547655"><ele>199.0</ele><time>2026-04-27T10:54:00.872Z</time></trkpt><trkpt lat="39.66271336118654" lon="8.542397817374395"><ele>199.0</ele><time>2026-04-27T10:54:01.872Z</time></trkpt><trkpt lat="39.66277847116587" lon="8.542350938628447"><ele>199.0</ele><time>2026-04-27T10:54:02.872Z</time></trkpt><trkpt lat="39.662842779117824" lon="8.542293076008553"><ele>199.0</ele><time>2026-04-27T10:54:03.872Z</time></trkpt><trkpt lat="39.66289825804222" lon="8.542223614737956"><ele>198.99999999999997</ele><time>2026-04-27T10:54:04.872Z</time></trkpt><trkpt lat="39.66294958105295" lon="8.542143811441152"><ele>199.0</ele><time>2026-04-27T10:54:05.872Z</time></trkpt><trkpt lat="39.662998742026176" lon="8.542063161696943"><ele>197.66666666666666</ele><time>2026-04-27T10:54:06.872Z</time></trkpt><trkpt lat="39.66303930203097" lon="8.541984162007665"><ele>196.33333333333331</ele><time>2026-04-27T10:54:07.872Z</time></trkpt><trkpt lat="39.66309223871862" lon="8.54191140292423"><ele>195.0</ele><time>2026-04-27T10:54:08.872Z</time></trkpt><trkpt lat="39.663142594750944" lon="8.541837414575722"><ele>193.66666666666666</ele><time>2026-04-27T10:54:09.872Z</time></trkpt><trkpt lat="39.66319740845545" lon="8.54176015200325"><ele>192.33333333333331</ele><time>2026-04-27T10:54:10.872Z</time></trkpt><trkpt lat="39.66325042100373" lon="8.541682908876433"><ele>191.0</ele><time>2026-04-27T10:54:11.872Z</time></trkpt><trkpt lat="39.66330663464452" lon="8.541609458413403"><ele>191.0</ele><time>2026-04-27T10:54:12.872Z</time></trkpt><trkpt lat="39.66335548952511" lon="8.541545419796398"><ele>191.0</ele><time>2026-04-27T10:54:13.872Z</time></trkpt><trkpt lat="39.663407402127845" lon="8.541478312715103"><ele>191.0</ele><time>2026-04-27T10:54:14.872Z</time></trkpt><trkpt lat="39.663464055176576" lon="8.541416737513051"><ele>191.0</ele><time>2026-04-27T10:54:15.872Z</time></trkpt><trkpt lat="39.66350946779361" lon="8.541359358868018"><ele>191.0</ele><time>2026-04-27T10:54:16.872Z</time></trkpt><trkpt lat="39.66359265193235" lon="8.541262173245196"><ele>191.0</ele><time>2026-04-27T10:54:18.872Z</time></trkpt><trkpt lat="39.66367547193221" lon="8.541188524358608"><ele>187.4</ele><time>2026-04-27T10:54:20.872Z</time></trkpt><trkpt lat="39.66377059185841" lon="8.541106519094356"><ele>183.8</ele><time>2026-04-27T10:54:22.872Z</time></trkpt><trkpt lat="39.663873721302345" lon="8.541004439504317"><ele>180.20000000000002</ele><time>2026-04-27T10:54:24.872Z</time></trkpt><trkpt lat="39.66393191039024" lon="8.54094888025325"><ele>176.60000000000002</ele><time>2026-04-27T10:54:25.872Z</time></trkpt><trkpt lat="39.663981441553695" lon="8.540889493111846"><ele>173.0</ele><time>2026-04-27T10:54:26.872Z</time></trkpt><trkpt lat="39.664066600610965" lon="8.540755194614741"><ele>173.0</ele><time>2026-04-27T10:54:28.872Z</time></trkpt><trkpt lat="39.664150276584664" lon="8.540635967584043"><ele>173.0</ele><time>2026-04-27T10:54:30.872Z</time></trkpt><trkpt lat="39.66420631461873" lon="8.540506263313642"><ele>173.0</ele><time>2026-04-27T10:54:32.872Z</time></trkpt><trkpt lat="39.664243309684515" lon="8.540377608385896"><ele>173.0</ele><time>2026-04-27T10:54:34.872Z</time></trkpt><trkpt lat="39.66425505565324" lon="8.540266105183047"><ele>173.0</ele><time>2026-04-27T10:54:36.872Z</time></trkpt><trkpt lat="39.66427092551341" lon="8.540181315611184"><ele>172.4</ele><time>2026-04-27T10:54:38.872Z</time></trkpt><trkpt lat="39.66429501974769" lon="8.540054351989408"><ele>171.8</ele><time>2026-04-27T10:54:41.872Z</time></trkpt><trkpt lat="39.66435769572263" lon="8.539934989057402"><ele>171.2</ele><time>2026-04-27T10:54:43.872Z</time></trkpt><trkpt lat="39.66444803694511" lon="8.539813715524348"><ele>170.6</ele><time>2026-04-27T10:54:45.872Z</time></trkpt><trkpt lat="39.66450160988043" lon="8.539745520500084"><ele>170.0</ele><time>2026-04-27T10:54:46.872Z</time></trkpt><trkpt lat="39.66455998842306" lon="8.53968587210954"><ele>168.33333333333331</ele><time>2026-04-27T10:54:47.872Z</time></trkpt><trkpt lat="39.66466801158374" lon="8.539608563149882"><ele>166.66666666666666</ele><time>2026-04-27T10:54:49.872Z</time></trkpt><trkpt lat="39.66473909684725" lon="8.539586829864534"><ele>165.0</ele><time>2026-04-27T10:54:50.872Z</time></trkpt><trkpt lat="39.6648066770402" lon="8.53953661000402"><ele>163.33333333333334</ele><time>2026-04-27T10:54:51.872Z</time></trkpt><trkpt lat="39.66484679654866" lon="8.539468443751465"><ele>161.66666666666669</ele><time>2026-04-27T10:54:52.872Z</time></trkpt><trkpt lat="39.66488620440917" lon="8.539388528195362"><ele>160.0</ele><time>2026-04-27T10:54:53.872Z</time></trkpt><trkpt lat="39.66491337709882" lon="8.53929461078065"><ele>159.4</ele><time>2026-04-27T10:54:54.872Z</time></trkpt><trkpt lat="39.66493350116616" lon="8.539216113025104"><ele>158.8</ele><time>2026-04-27T10:54:55.872Z</time></trkpt><trkpt lat="39.66501578074019" lon="8.539092018437408"><ele>158.2</ele><time>2026-04-27T10:54:57.872Z</time></trkpt><trkpt lat="39.665134002033234" lon="8.539054346824289"><ele>157.6</ele><time>2026-04-27T10:54:59.872Z</time></trkpt><trkpt lat="39.66520422268245" lon="8.539034064893166"><ele>157.0</ele><time>2026-04-27T10:55:00.872Z</time></trkpt><trkpt lat="39.66526454285087" lon="8.538987815957999"><ele>155.0</ele><time>2026-04-27T10:55:01.872Z</time></trkpt><trkpt lat="39.66531959908716" lon="8.53891449652748"><ele>153.0</ele><time>2026-04-27T10:55:02.872Z</time></trkpt><trkpt lat="39.66536392809746" lon="8.5388317562943"><ele>151.0</ele><time>2026-04-27T10:55:03.872Z</time></trkpt><trkpt lat="39.66542144837182" lon="8.538735228409854"><ele>149.0</ele><time>2026-04-27T10:55:04.872Z</time></trkpt><trkpt lat="39.66548383053163" lon="8.538650036708235"><ele>147.0</ele><time>2026-04-27T10:55:05.872Z</time></trkpt><trkpt lat="39.66556072347596" lon="8.5385773783753"><ele>145.0</ele><time>2026-04-27T10:55:06.872Z</time></trkpt><trkpt lat="39.665615429687186" lon="8.538523788416459"><ele>145.0</ele><time>2026-04-27T10:55:07.872Z</time></trkpt><trkpt lat="39.66570235279831" lon="8.538471219705386"><ele>145.0</ele><time>2026-04-27T10:55:08.872Z</time></trkpt><trkpt lat="39.6657794857427" lon="8.538447054088113"><ele>145.0</ele><time>2026-04-27T10:55:09.872Z</time></trkpt><trkpt lat="39.66586264623952" lon="8.538445879700994"><ele>145.0</ele><time>2026-04-27T10:55:10.872Z</time></trkpt><trkpt lat="39.66593898240563" lon="8.538452645047112"><ele>145.0</ele><time>2026-04-27T10:55:11.872Z</time></trkpt><trkpt lat="39.66600208411607" lon="8.53844404180502"><ele>145.0</ele><time>2026-04-27T10:55:12.872Z</time></trkpt><trkpt lat="39.66606688849553" lon="8.538409534315244"><ele>142.0</ele><time>2026-04-27T10:55:13.872Z</time></trkpt><trkpt lat="39.66613096880905" lon="8.538358574571014"><ele>139.0</ele><time>2026-04-27T10:55:14.872Z</time></trkpt><trkpt lat="39.66619527193296" lon="8.538295535501573"><ele>136.0</ele><time>2026-04-27T10:55:15.872Z</time></trkpt><trkpt lat="39.6662864501184" lon="8.538167814520829"><ele>133.0</ele><time>2026-04-27T10:55:17.872Z</time></trkpt><trkpt lat="39.66634414505015" lon="8.53805177174596"><ele>130.0</ele><time>2026-04-27T10:55:19.872Z</time></trkpt><trkpt lat="39.66640295976013" lon="8.537921085292341"><ele>129.83333333333334</ele><time>2026-04-27T10:55:21.872Z</time></trkpt><trkpt lat="39.66646365744535" lon="8.537872216573898"><ele>129.66666666666669</ele><time>2026-04-27T10:55:22.872Z</time></trkpt><trkpt lat="39.66652219069174" lon="8.53782066195921"><ele>129.5</ele><time>2026-04-27T10:55:23.872Z</time></trkpt><trkpt lat="39.666609822961206" lon="8.53770484464796"><ele>129.33333333333334</ele><time>2026-04-27T10:55:25.872Z</time></trkpt><trkpt lat="39.666661546244754" lon="8.537622216184673"><ele>129.16666666666666</ele><time>2026-04-27T10:55:26.872Z</time></trkpt><trkpt lat="39.666717063284096" lon="8.537546935920036"><ele>129.0</ele><time>2026-04-27T10:55:27.872Z</time></trkpt><trkpt lat="39.66677643990472" lon="8.537468003228916"><ele>129.0</ele><time>2026-04-27T10:55:28.872Z</time></trkpt><trkpt lat="39.66683396014075" lon="8.537393292399626"><ele>129.0</ele><time>2026-04-27T10:55:29.872Z</time></trkpt><trkpt lat="39.666886364526306" lon="8.537317101400443"><ele>129.0</ele><time>2026-04-27T10:55:30.872Z</time></trkpt><trkpt lat="39.66694878164672" lon="8.537228595680881"><ele>129.0</ele><time>2026-04-27T10:55:31.872Z</time></trkpt><trkpt lat="39.66699654111577" lon="8.537154231015451"><ele>129.0</ele><time>2026-04-27T10:55:32.872Z</time></trkpt><trkpt lat="39.66704613379287" lon="8.537072695652602"><ele>129.0</ele><time>2026-04-27T10:55:33.872Z</time></trkpt><trkpt lat="39.66710511852227" lon="8.537002421243868"><ele>127.4</ele><time>2026-04-27T10:55:34.872Z</time></trkpt><trkpt lat="39.66717570367367" lon="8.536933790783868"><ele>125.80000000000001</ele><time>2026-04-27T10:55:35.872Z</time></trkpt><trkpt lat="39.66725692712848" lon="8.536855679351033"><ele>124.19999999999999</ele><time>2026-04-27T10:55:36.872Z</time></trkpt><trkpt lat="39.667321339128215" lon="8.536776803860011"><ele>122.6</ele><time>2026-04-27T10:55:37.873Z</time></trkpt><trkpt lat="39.66738165300798" lon="8.536680820580099"><ele>121.0</ele><time>2026-04-27T10:55:38.873Z</time></trkpt><trkpt lat="39.66743229036996" lon="8.536564452845504"><ele>121.0</ele><time>2026-04-27T10:55:39.873Z</time></trkpt><trkpt lat="39.6674848790843" lon="8.536438015491932"><ele>121.0</ele><time>2026-04-27T10:55:40.873Z</time></trkpt><trkpt lat="39.66754373458597" lon="8.536327066650966"><ele>121.0</ele><time>2026-04-27T10:55:41.873Z</time></trkpt><trkpt lat="39.66760680266372" lon="8.53621294970942"><ele>121.0</ele><time>2026-04-27T10:55:42.873Z</time></trkpt><trkpt lat="39.66768033439551" lon="8.536108788238376"><ele>121.0</ele><time>2026-04-27T10:55:43.871Z</time></trkpt><trkpt lat="39.66775709834425" lon="8.536018353746512"><ele>120.19999999999999</ele><time>2026-04-27T10:55:44.87Z</time></trkpt><trkpt lat="39.667832131651366" lon="8.535912271068378"><ele>119.39999999999999</ele><time>2026-04-27T10:55:45.87Z</time></trkpt><trkpt lat="39.6679079476189" lon="8.535814400777555"><ele>118.6</ele><time>2026-04-27T10:55:46.871Z</time></trkpt><trkpt lat="39.66799285560305" lon="8.535720940784667"><ele>117.8</ele><time>2026-04-27T10:55:47.87Z</time></trkpt><trkpt lat="39.668081029816385" lon="8.535637671658717"><ele>117.0</ele><time>2026-04-27T10:55:48.87Z</time></trkpt><trkpt lat="39.668167791923" lon="8.535546743986517"><ele>117.0</ele><time>2026-04-27T10:55:49.871Z</time></trkpt><trkpt lat="39.66824135844629" lon="8.535466900870327"><ele>116.99999999999999</ele><time>2026-04-27T10:55:50.871Z</time></trkpt><trkpt lat="39.6683261717612" lon="8.535373760438658"><ele>116.99999999999999</ele><time>2026-04-27T10:55:51.871Z</time></trkpt><trkpt lat="39.66840911533658" lon="8.535292238242558"><ele>117.0</ele><time>2026-04-27T10:55:52.87Z</time></trkpt><trkpt lat="39.668508524264055" lon="8.535214603812026"><ele>117.0</ele><time>2026-04-27T10:55:53.871Z</time></trkpt><trkpt lat="39.66861014368789" lon="8.535141807087438"><ele>114.6</ele><time>2026-04-27T10:55:54.871Z</time></trkpt><trkpt lat="39.66870964566114" lon="8.53507322681222"><ele>112.19999999999999</ele><time>2026-04-27T10:55:55.87Z</time></trkpt><trkpt lat="39.66880706085174" lon="8.534999942912654"><ele>109.8</ele><time>2026-04-27T10:55:56.871Z</time></trkpt><trkpt lat="39.668889946620446" lon="8.534933992394272"><ele>107.4</ele><time>2026-04-27T10:55:57.871Z</time></trkpt><trkpt lat="39.66896855523519" lon="8.534848383480474"><ele>105.0</ele><time>2026-04-27T10:55:58.871Z</time></trkpt><trkpt lat="39.66903367817734" lon="8.534770356054693"><ele>105.0</ele><time>2026-04-27T10:55:59.871Z</time></trkpt><trkpt lat="39.669113620306426" lon="8.53468388312369"><ele>105.0</ele><time>2026-04-27T10:56:00.871Z</time></trkpt><trkpt lat="39.669200173204516" lon="8.534602982226536"><ele>105.0</ele><time>2026-04-27T10:56:01.871Z</time></trkpt><trkpt lat="39.66929531414111" lon="8.534519210537853"><ele>105.0</ele><time>2026-04-27T10:56:02.871Z</time></trkpt><trkpt lat="39.66938613360902" lon="8.53443564935005"><ele>105.0</ele><time>2026-04-27T10:56:03.871Z</time></trkpt><trkpt lat="39.66947473889079" lon="8.534370302097273"><ele>104.6</ele><time>2026-04-27T10:56:04.871Z</time></trkpt><trkpt lat="39.66957152871962" lon="8.534310569460255"><ele>104.2</ele><time>2026-04-27T10:56:05.871Z</time></trkpt><trkpt lat="39.66966051710453" lon="8.534240421656191"><ele>103.80000000000001</ele><time>2026-04-27T10:56:06.871Z</time></trkpt><trkpt lat="39.669735039041925" lon="8.534152765613923"><ele>103.4</ele><time>2026-04-27T10:56:07.871Z</time></trkpt><trkpt lat="39.669804644977255" lon="8.534041712928998"><ele>103.0</ele><time>2026-04-27T10:56:08.871Z</time></trkpt><trkpt lat="39.66987408563372" lon="8.533942442404753"><ele>103.0</ele><time>2026-04-27T10:56:09.871Z</time></trkpt><trkpt lat="39.66994463311955" lon="8.533852883692179"><ele>103.0</ele><time>2026-04-27T10:56:10.871Z</time></trkpt><trkpt lat="39.670012375536196" lon="8.533776586189461"><ele>103.0</ele><time>2026-04-27T10:56:11.871Z</time></trkpt><trkpt lat="39.670089220403554" lon="8.533726035170226"><ele>103.0</ele><time>2026-04-27T10:56:12.871Z</time></trkpt><trkpt lat="39.67018357236724" lon="8.533704140251965"><ele>103.0</ele><time>2026-04-27T10:56:13.871Z</time></trkpt><trkpt lat="39.670293474030586" lon="8.533672955459036"><ele>101.25</ele><time>2026-04-27T10:56:14.871Z</time></trkpt><trkpt lat="39.67040550654102" lon="8.533629658398269"><ele>99.5</ele><time>2026-04-27T10:56:15.871Z</time></trkpt><trkpt lat="39.67052135494054" lon="8.533572944666886"><ele>97.75</ele><time>2026-04-27T10:56:16.871Z</time></trkpt><trkpt lat="39.6706558692595" lon="8.533502113581385"><ele>96.0</ele><time>2026-04-27T10:56:17.871Z</time></trkpt><trkpt lat="39.670788217276375" lon="8.533425983939447"><ele>96.0</ele><time>2026-04-27T10:56:18.871Z</time></trkpt><trkpt lat="39.67093168106201" lon="8.5333369136408"><ele>96.0</ele><time>2026-04-27T10:56:19.871Z</time></trkpt><trkpt lat="39.67104088179089" lon="8.533239873570862"><ele>96.0</ele><time>2026-04-27T10:56:20.871Z</time></trkpt><trkpt lat="39.67114276552938" lon="8.533118845826634"><ele>96.0</ele><time>2026-04-27T10:56:21.871Z</time></trkpt><trkpt lat="39.67096254855317" lon="8.533185643966464"><ele>96.0</ele><time>2026-04-27T10:56:22.871Z</time></trkpt><trkpt lat="39.67100204593011" lon="8.533087729217174"><ele>96.0</ele><time>2026-04-27T10:56:23.871Z</time></trkpt><trkpt lat="39.67103882740859" lon="8.5329823271359"><ele>96.0</ele><time>2026-04-27T10:56:24.871Z</time></trkpt><trkpt lat="39.67109624196252" lon="8.532880990518422"><ele>96.0</ele><time>2026-04-27T10:56:25.871Z</time></trkpt><trkpt lat="39.67115381378347" lon="8.532781772557032"><ele>96.0</ele><time>2026-04-27T10:56:26.871Z</time></trkpt><trkpt lat="39.67120358092214" lon="8.532665291227774"><ele>95.19999999999999</ele><time>2026-04-27T10:56:27.871Z</time></trkpt><trkpt lat="39.671249556644796" lon="8.532545811851334"><ele>94.39999999999999</ele><time>2026-04-27T10:56:28.871Z</time></trkpt><trkpt lat="39.67130378843139" lon="8.532436215384527"><ele>93.6</ele><time>2026-04-27T10:56:29.871Z</time></trkpt><trkpt lat="39.67136053535826" lon="8.532338198581797"><ele>92.8</ele><time>2026-04-27T10:56:30.871Z</time></trkpt><trkpt lat="39.67141702544242" lon="8.532249313614232"><ele>92.0</ele><time>2026-04-27T10:56:31.871Z</time></trkpt><trkpt lat="39.67147194223677" lon="8.532180427003814"><ele>92.0</ele><time>2026-04-27T10:56:32.871Z</time></trkpt><trkpt lat="39.671539166733666" lon="8.532124858742145"><ele>92.0</ele><time>2026-04-27T10:56:33.871Z</time></trkpt><trkpt lat="39.67160666531953" lon="8.532064870875908"><ele>92.0</ele><time>2026-04-27T10:56:34.871Z</time></trkpt><trkpt lat="39.671681242438744" lon="8.53199376866266"><ele>92.0</ele><time>2026-04-27T10:56:35.871Z</time></trkpt><trkpt lat="39.671747930196034" lon="8.531916964948802"><ele>92.0</ele><time>2026-04-27T10:56:36.871Z</time></trkpt><trkpt lat="39.67180442696006" lon="8.531853100738221"><ele>92.0</ele><time>2026-04-27T10:56:37.871Z</time></trkpt><trkpt lat="39.67185505765418" lon="8.531793918922805"><ele>90.66666666666667</ele><time>2026-04-27T10:56:38.871Z</time></trkpt><trkpt lat="39.67190431016486" lon="8.531741026427808"><ele>89.33333333333334</ele><time>2026-04-27T10:56:39.871Z</time></trkpt><trkpt lat="39.67194667889311" lon="8.531664646064641"><ele>88.0</ele><time>2026-04-27T10:56:40.871Z</time></trkpt><trkpt lat="39.67198392449891" lon="8.53156049113241"><ele>86.66666666666667</ele><time>2026-04-27T10:56:41.871Z</time></trkpt><trkpt lat="39.672021703093506" lon="8.53144384215491"><ele>85.33333333333333</ele><time>2026-04-27T10:56:42.871Z</time></trkpt><trkpt lat="39.672074417651764" lon="8.53133850378074"><ele>84.0</ele><time>2026-04-27T10:56:43.871Z</time></trkpt><trkpt lat="39.672130552739524" lon="8.531233602159773"><ele>82.8</ele><time>2026-04-27T10:56:44.871Z</time></trkpt><trkpt lat="39.67217807522688" lon="8.531119537703429"><ele>81.60000000000001</ele><time>2026-04-27T10:56:45.871Z</time></trkpt><trkpt lat="39.67223474782699" lon="8.531011827170179"><ele>80.4</ele><time>2026-04-27T10:56:46.871Z</time></trkpt><trkpt lat="39.67229791128117" lon="8.530893982778878"><ele>79.2</ele><time>2026-04-27T10:56:47.871Z</time></trkpt><trkpt lat="39.6723556048344" lon="8.530782971263058"><ele>78.0</ele><time>2026-04-27T10:56:48.871Z</time></trkpt><trkpt lat="39.67242146107408" lon="8.530672259731407"><ele>78.0</ele><time>2026-04-27T10:56:49.871Z</time></trkpt><trkpt lat="39.67249135255221" lon="8.530578432926777"><ele>78.0</ele><time>2026-04-27T10:56:50.871Z</time></trkpt><trkpt lat="39.67258139792011" lon="8.530486985250766"><ele>78.0</ele><time>2026-04-27T10:56:51.871Z</time></trkpt><trkpt lat="39.67268069327511" lon="8.53040330576797"><ele>78.0</ele><time>2026-04-27T10:56:52.871Z</time></trkpt><trkpt lat="39.672781023948595" lon="8.530324400599323"><ele>76.25</ele><time>2026-04-27T10:56:53.871Z</time></trkpt><trkpt lat="39.67287586134641" lon="8.530245202926915"><ele>74.5</ele><time>2026-04-27T10:56:54.871Z</time></trkpt><trkpt lat="39.672981749482965" lon="8.530154407853667"><ele>72.75</ele><time>2026-04-27T10:56:55.871Z</time></trkpt><trkpt lat="39.67308294647488" lon="8.530059552117145"><ele>71.0</ele><time>2026-04-27T10:56:56.871Z</time></trkpt><trkpt lat="39.67318228844392" lon="8.52996019557626"><ele>71.0</ele><time>2026-04-27T10:56:57.871Z</time></trkpt><trkpt lat="39.67326862053019" lon="8.529876945842354"><ele>71.0</ele><time>2026-04-27T10:56:58.871Z</time></trkpt><trkpt lat="39.67336701741155" lon="8.529800301673776"><ele>71.0</ele><time>2026-04-27T10:56:59.871Z</time></trkpt><trkpt lat="39.673457703303555" lon="8.529725504624121"><ele>71.0</ele><time>2026-04-27T10:57:00.871Z</time></trkpt><trkpt lat="39.67354124894756" lon="8.529641438733725"><ele>71.0</ele><time>2026-04-27T10:57:01.871Z</time></trkpt><trkpt lat="39.67362668193744" lon="8.529557913016248"><ele>70.5</ele><time>2026-04-27T10:57:02.871Z</time></trkpt><trkpt lat="39.673734546459315" lon="8.5294811332646"><ele>70.0</ele><time>2026-04-27T10:57:03.871Z</time></trkpt><trkpt lat="39.673842839768696" lon="8.529415191852452"><ele>69.5</ele><time>2026-04-27T10:57:04.871Z</time></trkpt><trkpt lat="39.673960314760905" lon="8.529347677663777"><ele>69.0</ele><time>2026-04-27T10:57:05.871Z</time></trkpt><trkpt lat="39.674079569996834" lon="8.529282561562209"><ele>69.0</ele><time>2026-04-27T10:57:06.871Z</time></trkpt><trkpt lat="39.67419933454778" lon="8.529220539467987"><ele>69.0</ele><time>2026-04-27T10:57:07.871Z</time></trkpt><trkpt lat="39.674308627901695" lon="8.529163242872624"><ele>69.0</ele><time>2026-04-27T10:57:08.871Z</time></trkpt><trkpt lat="39.67442047814464" lon="8.529099407098755"><ele>69.0</ele><time>2026-04-27T10:57:09.871Z</time></trkpt><trkpt lat="39.67453098881544" lon="8.529040053794143"><ele>68.60000000000001</ele><time>2026-04-27T10:57:10.871Z</time></trkpt><trkpt lat="39.67463992697626" lon="8.528995610789528"><ele>68.2</ele><time>2026-04-27T10:57:11.871Z</time></trkpt><trkpt lat="39.67474731407331" lon="8.528975354431635"><ele>67.80000000000001</ele><time>2026-04-27T10:57:12.871Z</time></trkpt><trkpt lat="39.674850057310174" lon="8.528959550898238"><ele>67.4</ele><time>2026-04-27T10:57:13.871Z</time></trkpt><trkpt lat="39.6749651155727" lon="8.528914901093426"><ele>67.0</ele><time>2026-04-27T10:57:14.871Z</time></trkpt><trkpt lat="39.67508081305529" lon="8.528853307327886"><ele>67.0</ele><time>2026-04-27T10:57:15.871Z</time></trkpt><trkpt lat="39.675164183251134" lon="8.528780011090765"><ele>67.0</ele><time>2026-04-27T10:57:16.871Z</time></trkpt><trkpt lat="39.675242049933665" lon="8.528702445153895"><ele>67.0</ele><time>2026-04-27T10:57:17.871Z</time></trkpt><trkpt lat="39.67531735099458" lon="8.528635511824898"><ele>67.0</ele><time>2026-04-27T10:57:18.871Z</time></trkpt><trkpt lat="39.675405233758575" lon="8.528562124447921"><ele>67.0</ele><time>2026-04-27T10:57:19.871Z</time></trkpt><trkpt lat="39.675508317633586" lon="8.5284689784823"><ele>67.0</ele><time>2026-04-27T10:57:20.871Z</time></trkpt><trkpt lat="39.675585953377706" lon="8.528406682143016"><ele>67.0</ele><time>2026-04-27T10:57:21.871Z</time></trkpt><trkpt lat="39.675682066260855" lon="8.528356949381884"><ele>67.0</ele><time>2026-04-27T10:57:22.871Z</time></trkpt><trkpt lat="39.67577424474884" lon="8.528337508174834"><ele>67.0</ele><time>2026-04-27T10:57:23.871Z</time></trkpt><trkpt lat="39.67587813472555" lon="8.528322091462456"><ele>67.0</ele><time>2026-04-27T10:57:24.871Z</time></trkpt><trkpt lat="39.675987545799615" lon="8.528310391603856"><ele>67.0</ele><time>2026-04-27T10:57:25.871Z</time></trkpt><trkpt lat="39.676078138311325" lon="8.52830411038975"><ele>67.0</ele><time>2026-04-27T10:57:26.871Z</time></trkpt><trkpt lat="39.67615587375882" lon="8.528318935370075"><ele>67.0</ele><time>2026-04-27T10:57:27.871Z</time></trkpt><trkpt lat="39.67621204438427" lon="8.528358992828059"><ele>67.0</ele><time>2026-04-27T10:57:28.871Z</time></trkpt><trkpt lat="39.67627919691522" lon="8.528421027433712"><ele>67.0</ele><time>2026-04-27T10:57:29.871Z</time></trkpt><trkpt lat="39.676328830875455" lon="8.528538113990882"><ele>67.0</ele><time>2026-04-27T10:57:30.871Z</time></trkpt><trkpt lat="39.67640729547856" lon="8.528621884189441"><ele>66.6</ele><time>2026-04-27T10:57:31.871Z</time></trkpt><trkpt lat="39.67648311539625" lon="8.528689667166189"><ele>66.2</ele><time>2026-04-27T10:57:32.871Z</time></trkpt><trkpt lat="39.676564608586226" lon="8.528764352916253"><ele>65.8</ele><time>2026-04-27T10:57:33.871Z</time></trkpt><trkpt lat="39.67664737526493" lon="8.52882618916399"><ele>65.4</ele><time>2026-04-27T10:57:34.871Z</time></trkpt><trkpt lat="39.676723714876154" lon="8.528890103292786"><ele>65.0</ele><time>2026-04-27T10:57:35.871Z</time></trkpt><trkpt lat="39.676775569773426" lon="8.528957809854422"><ele>64.83333333333334</ele><time>2026-04-27T10:57:36.871Z</time></trkpt><trkpt lat="39.67680029159306" lon="8.529052958459005"><ele>64.66666666666667</ele><time>2026-04-27T10:57:37.871Z</time></trkpt><trkpt lat="39.6768414739817" lon="8.529130009430302"><ele>64.5</ele><time>2026-04-27T10:57:38.871Z</time></trkpt><trkpt lat="39.67685936506373" lon="8.529238965976552"><ele>64.33333333333333</ele><time>2026-04-27T10:57:39.871Z</time></trkpt><trkpt lat="39.67689224826968" lon="8.529352631184093"><ele>64.16666666666666</ele><time>2026-04-27T10:57:40.871Z</time></trkpt><trkpt lat="39.67693765011927" lon="8.52946128143034"><ele>64.0</ele><time>2026-04-27T10:57:41.871Z</time></trkpt><trkpt lat="39.67700574444772" lon="8.529549253974421"><ele>63.2</ele><time>2026-04-27T10:57:42.871Z</time></trkpt><trkpt lat="39.67709423437951" lon="8.529577504252527"><ele>62.400000000000006</ele><time>2026-04-27T10:57:43.871Z</time></trkpt><trkpt lat="39.67718596445031" lon="8.529596874637663"><ele>61.6</ele><time>2026-04-27T10:57:44.871Z</time></trkpt><trkpt lat="39.677291357775154" lon="8.529625154916122"><ele>60.8</ele><time>2026-04-27T10:57:45.871Z</time></trkpt><trkpt lat="39.67739901994347" lon="8.529691506228016"><ele>60.0</ele><time>2026-04-27T10:57:46.871Z</time></trkpt><trkpt lat="39.67751005007999" lon="8.52973741443458"><ele>60.0</ele><time>2026-04-27T10:57:47.871Z</time></trkpt><trkpt lat="39.67762947082899" lon="8.529790845803529"><ele>60.0</ele><time>2026-04-27T10:57:48.871Z</time></trkpt><trkpt lat="39.67776210003081" lon="8.52982819368171"><ele>60.0</ele><time>2026-04-27T10:57:49.869Z</time></trkpt><trkpt lat="39.67788950902855" lon="8.529881093650241"><ele>60.0</ele><time>2026-04-27T10:57:50.869Z</time></trkpt><trkpt lat="39.67801268794443" lon="8.529931862428723"><ele>59.5</ele><time>2026-04-27T10:57:51.869Z</time></trkpt><trkpt lat="39.678120777103246" lon="8.530017956216334"><ele>59.0</ele><time>2026-04-27T10:57:52.87Z</time></trkpt><trkpt lat="39.678236060405936" lon="8.53009624800256"><ele>58.5</ele><time>2026-04-27T10:57:53.87Z</time></trkpt><trkpt lat="39.67834500991789" lon="8.53018030221013"><ele>58.0</ele><time>2026-04-27T10:57:54.87Z</time></trkpt><trkpt lat="39.678444801478285" lon="8.53028960908923"><ele>57.5</ele><time>2026-04-27T10:57:55.87Z</time></trkpt><trkpt lat="39.67853425710292" lon="8.53040533502364"><ele>57.0</ele><time>2026-04-27T10:57:56.869Z</time></trkpt><trkpt lat="39.67862081287188" lon="8.530511182594626"><ele>56.5</ele><time>2026-04-27T10:57:57.869Z</time></trkpt><trkpt lat="39.678710902856984" lon="8.530621352145866"><ele>56.0</ele><time>2026-04-27T10:57:58.87Z</time></trkpt><trkpt lat="39.67879496453695" lon="8.530703225913847"><ele>55.66666666666667</ele><time>2026-04-27T10:57:59.87Z</time></trkpt><trkpt lat="39.67886507563995" lon="8.530784545241994"><ele>55.333333333333336</ele><time>2026-04-27T10:58:00.87Z</time></trkpt><trkpt lat="39.67893245993605" lon="8.530835312375402"><ele>55.0</ele><time>2026-04-27T10:58:01.87Z</time></trkpt><trkpt lat="39.67899340577784" lon="8.53088233736879"><ele>54.66666666666667</ele><time>2026-04-27T10:58:02.87Z</time></trkpt><trkpt lat="39.67908964530801" lon="8.530875756116878"><ele>54.333333333333336</ele><time>2026-04-27T10:58:04.87Z</time></trkpt><trkpt lat="39.679112237946285" lon="8.530774440644716"><ele>54.0</ele><time>2026-04-27T10:58:06.87Z</time></trkpt><trkpt lat="39.67910465397096" lon="8.530637435887357"><ele>54.0</ele><time>2026-04-27T10:58:08.87Z</time></trkpt><trkpt lat="39.67909347169263" lon="8.530524363521671"><ele>54.00000000000001</ele><time>2026-04-27T10:58:09.87Z</time></trkpt><trkpt lat="39.679081753326884" lon="8.530385731724802"><ele>54.00000000000001</ele><time>2026-04-27T10:58:10.87Z</time></trkpt><trkpt lat="39.67907529679779" lon="8.53024245205302"><ele>54.0</ele><time>2026-04-27T10:58:11.87Z</time></trkpt><trkpt lat="39.67906468879468" lon="8.530099889112414"><ele>54.0</ele><time>2026-04-27T10:58:12.87Z</time></trkpt><trkpt lat="39.679055974334524" lon="8.529947031603543"><ele>54.25</ele><time>2026-04-27T10:58:13.87Z</time></trkpt><trkpt lat="39.67904776129351" lon="8.529769402693075"><ele>54.5</ele><time>2026-04-27T10:58:14.87Z</time></trkpt><trkpt lat="39.67904275627494" lon="8.529600465237072"><ele>54.75</ele><time>2026-04-27T10:58:15.87Z</time></trkpt><trkpt lat="39.67905974855791" lon="8.529444799021952"><ele>55.0</ele><time>2026-04-27T10:58:16.87Z</time></trkpt><trkpt lat="39.67906532647644" lon="8.529290482175778"><ele>55.25</ele><time>2026-04-27T10:58:17.87Z</time></trkpt><trkpt lat="39.679077460277014" lon="8.52913773797632"><ele>55.5</ele><time>2026-04-27T10:58:18.87Z</time></trkpt><trkpt lat="39.679098788451924" lon="8.528982141014964"><ele>55.75</ele><time>2026-04-27T10:58:19.87Z</time></trkpt><trkpt lat="39.67909753218187" lon="8.528834888105964"><ele>56.0</ele><time>2026-04-27T10:58:20.87Z</time></trkpt><trkpt lat="39.67911088823107" lon="8.528691096020886"><ele>55.5</ele><time>2026-04-27T10:58:21.87Z</time></trkpt><trkpt lat="39.67911458438631" lon="8.52853296227005"><ele>55.0</ele><time>2026-04-27T10:58:22.87Z</time></trkpt><trkpt lat="39.679120363817646" lon="8.528368980306544"><ele>54.5</ele><time>2026-04-27T10:58:23.87Z</time></trkpt><trkpt lat="39.67914091194148" lon="8.52821026416105"><ele>54.0</ele><time>2026-04-27T10:58:24.87Z</time></trkpt><trkpt lat="39.67913112349968" lon="8.528062687522837"><ele>54.0</ele><time>2026-04-27T10:58:25.87Z</time></trkpt><trkpt lat="39.679103562294586" lon="8.527920971317139"><ele>54.0</ele><time>2026-04-27T10:58:26.87Z</time></trkpt><trkpt lat="39.67905280975514" lon="8.527792312867886"><ele>54.0</ele><time>2026-04-27T10:58:27.87Z</time></trkpt><trkpt lat="39.67902604997301" lon="8.527641565829516"><ele>54.0</ele><time>2026-04-27T10:58:28.87Z</time></trkpt><trkpt lat="39.67903517315345" lon="8.527481144956202"><ele>53.0</ele><time>2026-04-27T10:58:29.87Z</time></trkpt><trkpt lat="39.679034736007196" lon="8.527311587968319"><ele>52.0</ele><time>2026-04-27T10:58:30.87Z</time></trkpt><trkpt lat="39.67901690641792" lon="8.527148216869396"><ele>51.0</ele><time>2026-04-27T10:58:31.87Z</time></trkpt><trkpt lat="39.67900222229022" lon="8.526987886886683"><ele>50.0</ele><time>2026-04-27T10:58:32.87Z</time></trkpt><trkpt lat="39.67898796853285" lon="8.526841486039546"><ele>49.66666666666667</ele><time>2026-04-27T10:58:33.87Z</time></trkpt><trkpt lat="39.6789820533816" lon="8.526718560688046"><ele>49.333333333333336</ele><time>2026-04-27T10:58:34.87Z</time></trkpt><trkpt lat="39.679005913376585" lon="8.52662209230554"><ele>49.0</ele><time>2026-04-27T10:58:35.87Z</time></trkpt><trkpt lat="39.67903934462271" lon="8.526546305614692"><ele>48.66666666666667</ele><time>2026-04-27T10:58:36.87Z</time></trkpt><trkpt lat="39.67910417524418" lon="8.526519308447012"><ele>48.333333333333336</ele><time>2026-04-27T10:58:37.87Z</time></trkpt><trkpt lat="39.679210924841" lon="8.526536683345212"><ele>48.0</ele><time>2026-04-27T10:58:39.87Z</time></trkpt><trkpt lat="39.67929448637072" lon="8.526526401758113"><ele>48.0</ele><time>2026-04-27T10:58:40.87Z</time></trkpt><trkpt lat="39.67939975846976" lon="8.52649689458382"><ele>48.0</ele><time>2026-04-27T10:58:41.87Z</time></trkpt><trkpt lat="39.679505865528455" lon="8.526489741407289"><ele>48.0</ele><time>2026-04-27T10:58:42.87Z</time></trkpt><trkpt lat="39.67962048263588" lon="8.526466434245435"><ele>48.0</ele><time>2026-04-27T10:58:43.87Z</time></trkpt><trkpt lat="39.67973607826099" lon="8.526447190441015"><ele>48.0</ele><time>2026-04-27T10:58:44.87Z</time></trkpt><trkpt lat="39.67984229021019" lon="8.526427143085542"><ele>47.599999999999994</ele><time>2026-04-27T10:58:45.87Z</time></trkpt><trkpt lat="39.6799266963225" lon="8.526386424000655"><ele>47.199999999999996</ele><time>2026-04-27T10:58:46.87Z</time></trkpt><trkpt lat="39.67999391590502" lon="8.526328224484228"><ele>46.8</ele><time>2026-04-27T10:58:47.87Z</time></trkpt><trkpt lat="39.68004668694433" lon="8.526253704858409"><ele>46.4</ele><time>2026-04-27T10:58:48.87Z</time></trkpt><trkpt lat="39.6801161374533" lon="8.526156344031444"><ele>46.0</ele><time>2026-04-27T10:58:49.87Z</time></trkpt><trkpt lat="39.6801931044101" lon="8.52605605083317"><ele>45.0</ele><time>2026-04-27T10:58:50.87Z</time></trkpt><trkpt lat="39.680276378879384" lon="8.525969496291568"><ele>44.0</ele><time>2026-04-27T10:58:51.87Z</time></trkpt><trkpt lat="39.68037740452697" lon="8.525916789873191"><ele>43.0</ele><time>2026-04-27T10:58:52.87Z</time></trkpt><trkpt lat="39.68048646721518" lon="8.525882478621"><ele>42.0</ele><time>2026-04-27T10:58:53.87Z</time></trkpt><trkpt lat="39.680596743385266" lon="8.525834406613441"><ele>41.0</ele><time>2026-04-27T10:58:54.87Z</time></trkpt><trkpt lat="39.6807130696383" lon="8.525758124543112"><ele>41.0</ele><time>2026-04-27T10:58:55.87Z</time></trkpt><trkpt lat="39.68080798247066" lon="8.525674454375642"><ele>41.0</ele><time>2026-04-27T10:58:56.87Z</time></trkpt><trkpt lat="39.68089793540511" lon="8.525590171848638"><ele>41.0</ele><time>2026-04-27T10:58:57.87Z</time></trkpt><trkpt lat="39.680982917519536" lon="8.525497772202565"><ele>41.0</ele><time>2026-04-27T10:58:58.87Z</time></trkpt><trkpt lat="39.68108325225311" lon="8.52543050613677"><ele>41.0</ele><time>2026-04-27T10:58:59.87Z</time></trkpt><trkpt lat="39.681171370972926" lon="8.525367103603054"><ele>39.4</ele><time>2026-04-27T10:59:00.87Z</time></trkpt><trkpt lat="39.68127006689175" lon="8.52532108910863"><ele>37.8</ele><time>2026-04-27T10:59:01.87Z</time></trkpt><trkpt lat="39.68136974574961" lon="8.525270439408272"><ele>36.199999999999996</ele><time>2026-04-27T10:59:02.87Z</time></trkpt><trkpt lat="39.68146400173451" lon="8.525198502028212"><ele>34.599999999999994</ele><time>2026-04-27T10:59:03.87Z</time></trkpt><trkpt lat="39.68156960956401" lon="8.525123815278494"><ele>33.0</ele><time>2026-04-27T10:59:04.87Z</time></trkpt><trkpt lat="39.68166913353539" lon="8.525046870677103"><ele>33.0</ele><time>2026-04-27T10:59:05.87Z</time></trkpt><trkpt lat="39.68177921974943" lon="8.524967206511283"><ele>33.0</ele><time>2026-04-27T10:59:06.87Z</time></trkpt><trkpt lat="39.681888897254396" lon="8.524892944735331"><ele>33.0</ele><time>2026-04-27T10:59:07.87Z</time></trkpt><trkpt lat="39.68200511064444" lon="8.524825108340448"><ele>33.0</ele><time>2026-04-27T10:59:08.87Z</time></trkpt><trkpt lat="39.68212180663171" lon="8.524751329617867"><ele>31.75</ele><time>2026-04-27T10:59:09.87Z</time></trkpt><trkpt lat="39.682235592849636" lon="8.524664206466749"><ele>30.5</ele><time>2026-04-27T10:59:10.87Z</time></trkpt><trkpt lat="39.68233421698998" lon="8.52457004534073"><ele>29.25</ele><time>2026-04-27T10:59:11.87Z</time></trkpt><trkpt lat="39.68242045197609" lon="8.524488870054403"><ele>28.0</ele><time>2026-04-27T10:59:12.87Z</time></trkpt><trkpt lat="39.68250667355446" lon="8.524426035389771"><ele>28.0</ele><time>2026-04-27T10:59:13.87Z</time></trkpt><trkpt lat="39.68260595396739" lon="8.52438960747551"><ele>28.0</ele><time>2026-04-27T10:59:14.87Z</time></trkpt><trkpt lat="39.68271530910518" lon="8.524359637004167"><ele>28.0</ele><time>2026-04-27T10:59:15.87Z</time></trkpt><trkpt lat="39.682847276607184" lon="8.52431160800276"><ele>28.0</ele><time>2026-04-27T10:59:16.87Z</time></trkpt><trkpt lat="39.683000346066684" lon="8.524246649199597"><ele>27.666666666666668</ele><time>2026-04-27T10:59:17.87Z</time></trkpt><trkpt lat="39.68314999337006" lon="8.52416884480866"><ele>27.333333333333336</ele><time>2026-04-27T10:59:18.87Z</time></trkpt><trkpt lat="39.683277098307826" lon="8.524079127561913"><ele>27.0</ele><time>2026-04-27T10:59:19.87Z</time></trkpt><trkpt lat="39.68343194460101" lon="8.523975475739203"><ele>27.0</ele><time>2026-04-27T10:59:20.87Z</time></trkpt><trkpt lat="39.6835070953063" lon="8.523943282731466"><ele>27.000000000000004</ele><time>2026-04-27T10:59:21.87Z</time></trkpt><trkpt lat="39.68361417643771" lon="8.52390098404696"><ele>27.000000000000004</ele><time>2026-04-27T10:59:22.87Z</time></trkpt><trkpt lat="39.68373369801855" lon="8.52385854292721"><ele>27.0</ele><time>2026-04-27T10:59:23.871Z</time></trkpt><trkpt lat="39.68385424252439" lon="8.523819158630557"><ele>27.0</ele><time>2026-04-27T10:59:24.871Z</time></trkpt><trkpt lat="39.68395296710946" lon="8.52377213574978"><ele>27.5</ele><time>2026-04-27T10:59:25.871Z</time></trkpt><trkpt lat="39.68408962684806" lon="8.523732978944276"><ele>28.0</ele><time>2026-04-27T10:59:26.871Z</time></trkpt><trkpt lat="39.68422512352745" lon="8.523727988709945"><ele>28.5</ele><time>2026-04-27T10:59:27.871Z</time></trkpt><trkpt lat="39.68435031363176" lon="8.52367593066241"><ele>29.0</ele><time>2026-04-27T10:59:28.871Z</time></trkpt><trkpt lat="39.68448019848468" lon="8.523631092991554"><ele>29.0</ele><time>2026-04-27T10:59:29.871Z</time></trkpt><trkpt lat="39.6846107747021" lon="8.523564905377592"><ele>29.0</ele><time>2026-04-27T10:59:30.871Z</time></trkpt><trkpt lat="39.68474505284858" lon="8.523497711236823"><ele>29.0</ele><time>2026-04-27T10:59:31.871Z</time></trkpt><trkpt lat="39.684882490270176" lon="8.523432647262968"><ele>29.0</ele><time>2026-04-27T10:59:32.871Z</time></trkpt><trkpt lat="39.685015436732115" lon="8.523397269168377"><ele>29.0</ele><time>2026-04-27T10:59:33.871Z</time></trkpt><trkpt lat="39.68513232596358" lon="8.52335494320823"><ele>29.0</ele><time>2026-04-27T10:59:34.871Z</time></trkpt><trkpt lat="39.685242945891545" lon="8.52332761878768"><ele>29.0</ele><time>2026-04-27T10:59:35.871Z</time></trkpt><trkpt lat="39.685356202788476" lon="8.523321836096216"><ele>29.0</ele><time>2026-04-27T10:59:36.871Z</time></trkpt><trkpt lat="39.68547038932577" lon="8.52333862668694"><ele>28.25</ele><time>2026-04-27T10:59:37.871Z</time></trkpt><trkpt lat="39.685594418988536" lon="8.523362602334702"><ele>27.5</ele><time>2026-04-27T10:59:38.871Z</time></trkpt><trkpt lat="39.68572779650419" lon="8.523393053828217"><ele>26.75</ele><time>2026-04-27T10:59:39.871Z</time></trkpt><trkpt lat="39.68587111559113" lon="8.523426024654306"><ele>26.0</ele><time>2026-04-27T10:59:40.871Z</time></trkpt><trkpt lat="39.685996373050735" lon="8.523434914859743"><ele>26.0</ele><time>2026-04-27T10:59:41.871Z</time></trkpt><trkpt lat="39.68614189997965" lon="8.523474423325862"><ele>26.0</ele><time>2026-04-27T10:59:42.871Z</time></trkpt><trkpt lat="39.68628277735187" lon="8.523510165985979"><ele>26.0</ele><time>2026-04-27T10:59:43.871Z</time></trkpt><trkpt lat="39.68641491673338" lon="8.523543360671821"><ele>26.0</ele><time>2026-04-27T10:59:44.871Z</time></trkpt><trkpt lat="39.68655093512139" lon="8.523573398694198"><ele>26.0</ele><time>2026-04-27T10:59:45.871Z</time></trkpt><trkpt lat="39.68668986025335" lon="8.523595263494405"><ele>26.0</ele><time>2026-04-27T10:59:46.871Z</time></trkpt><trkpt lat="39.68682858515555" lon="8.52361149143484"><ele>26.0</ele><time>2026-04-27T10:59:47.871Z</time></trkpt><trkpt lat="39.68697722421531" lon="8.523638989794122"><ele>26.0</ele><time>2026-04-27T10:59:48.871Z</time></trkpt><trkpt lat="39.68710610944769" lon="8.523656420428617"><ele>25.75</ele><time>2026-04-27T10:59:49.871Z</time></trkpt><trkpt lat="39.687231824566375" lon="8.523639863094848"><ele>25.5</ele><time>2026-04-27T10:59:50.871Z</time></trkpt><trkpt lat="39.68735757306675" lon="8.523622982612258"><ele>25.25</ele><time>2026-04-27T10:59:51.871Z</time></trkpt><trkpt lat="39.687486624182384" lon="8.523604386764875"><ele>25.0</ele><time>2026-04-27T10:59:52.871Z</time></trkpt><trkpt lat="39.68762251333083" lon="8.523577189873727"><ele>25.0</ele><time>2026-04-27T10:59:53.871Z</time></trkpt><trkpt lat="39.68774504560425" lon="8.52352291532689"><ele>25.0</ele><time>2026-04-27T10:59:54.871Z</time></trkpt><trkpt lat="39.68787216601269" lon="8.523453868412659"><ele>25.0</ele><time>2026-04-27T10:59:55.869Z</time></trkpt><trkpt lat="39.688010335536674" lon="8.523393242057663"><ele>25.0</ele><time>2026-04-27T10:59:56.869Z</time></trkpt><trkpt lat="39.688154919626925" lon="8.523359840978598"><ele>24.0</ele><time>2026-04-27T10:59:57.869Z</time></trkpt><trkpt lat="39.68828864135997" lon="8.523308541731515"><ele>23.0</ele><time>2026-04-27T10:59:58.869Z</time></trkpt><trkpt lat="39.68841894548652" lon="8.52323616373732"><ele>22.0</ele><time>2026-04-27T10:59:59.869Z</time></trkpt><trkpt lat="39.68856000980713" lon="8.52318227460609"><ele>21.0</ele><time>2026-04-27T11:00:00.869Z</time></trkpt><trkpt lat="39.688706970318705" lon="8.523126658472247"><ele>20.0</ele><time>2026-04-27T11:00:01.868Z</time></trkpt><trkpt lat="39.688850308928245" lon="8.523074267630857"><ele>19.0</ele><time>2026-04-27T11:00:02.869Z</time></trkpt><trkpt lat="39.68898956352889" lon="8.523016930508362"><ele>18.0</ele><time>2026-04-27T11:00:03.869Z</time></trkpt><trkpt lat="39.689139010441984" lon="8.522980205808718"><ele>17.0</ele><time>2026-04-27T11:00:04.868Z</time></trkpt><trkpt lat="39.689283225750586" lon="8.52292450382263"><ele>17.0</ele><time>2026-04-27T11:00:05.869Z</time></trkpt><trkpt lat="39.68942409825291" lon="8.522870092980343"><ele>17.0</ele><time>2026-04-27T11:00:06.869Z</time></trkpt><trkpt lat="39.68957247468655" lon="8.522811789606726"><ele>17.0</ele><time>2026-04-27T11:00:07.869Z</time></trkpt><trkpt lat="39.689722568653785" lon="8.522755855025755"><ele>17.2</ele><time>2026-04-27T11:00:08.869Z</time></trkpt><trkpt lat="39.6898471524516" lon="8.522719371388574"><ele>17.4</ele><time>2026-04-27T11:00:09.869Z</time></trkpt><trkpt lat="39.689953448053245" lon="8.522695594759986"><ele>17.6</ele><time>2026-04-27T11:00:10.869Z</time></trkpt><trkpt lat="39.690047293838845" lon="8.522696593006076"><ele>17.8</ele><time>2026-04-27T11:00:11.869Z</time></trkpt><trkpt lat="39.69012177099583" lon="8.522715542856492"><ele>18.0</ele><time>2026-04-27T11:00:12.869Z</time></trkpt><trkpt lat="39.6901858528783" lon="8.522774480982378"><ele>18.2</ele><time>2026-04-27T11:00:13.869Z</time></trkpt><trkpt lat="39.690279647592334" lon="8.522843186756932"><ele>18.4</ele><time>2026-04-27T11:00:14.869Z</time></trkpt><trkpt lat="39.69037774282858" lon="8.522881670852225"><ele>18.599999999999998</ele><time>2026-04-27T11:00:15.869Z</time></trkpt><trkpt lat="39.690458122811634" lon="8.522909702730399"><ele>18.8</ele><time>2026-04-27T11:00:16.869Z</time></trkpt><trkpt lat="39.69053665847903" lon="8.522925993514589"><ele>19.0</ele><time>2026-04-27T11:00:17.869Z</time></trkpt><trkpt lat="39.69063593043002" lon="8.522922326031527"><ele>19.0</ele><time>2026-04-27T11:00:18.869Z</time></trkpt><trkpt lat="39.690741697216446" lon="8.522928618835982"><ele>19.0</ele><time>2026-04-27T11:00:19.869Z</time></trkpt><trkpt lat="39.69085026198106" lon="8.522910139230635"><ele>19.0</ele><time>2026-04-27T11:00:20.869Z</time></trkpt><trkpt lat="39.690935842043565" lon="8.522893414077148"><ele>19.0</ele><time>2026-04-27T11:00:21.869Z</time></trkpt><trkpt lat="39.69101281611939" lon="8.522845373622275"><ele>19.0</ele><time>2026-04-27T11:00:22.869Z</time></trkpt><trkpt lat="39.691077502878336" lon="8.52281152369999"><ele>18.4</ele><time>2026-04-27T11:00:23.869Z</time></trkpt><trkpt lat="39.69118611853336" lon="8.52288193270065"><ele>17.799999999999997</ele><time>2026-04-27T11:00:25.869Z</time></trkpt><trkpt lat="39.69122231192413" lon="8.522984502208278"><ele>17.200000000000003</ele><time>2026-04-27T11:00:26.869Z</time></trkpt><trkpt lat="39.69126939766155" lon="8.5230919414094"><ele>16.6</ele><time>2026-04-27T11:00:27.869Z</time></trkpt><trkpt lat="39.69132511395441" lon="8.523204498819155"><ele>16.0</ele><time>2026-04-27T11:00:28.869Z</time></trkpt><trkpt lat="39.691373281542" lon="8.523298393094322"><ele>15.200000000000001</ele><time>2026-04-27T11:00:29.869Z</time></trkpt><trkpt lat="39.69141686183621" lon="8.523380583996593"><ele>14.400000000000002</ele><time>2026-04-27T11:00:30.869Z</time></trkpt><trkpt lat="39.69148523609676" lon="8.523483260097413"><ele>13.6</ele><time>2026-04-27T11:00:32.869Z</time></trkpt><trkpt lat="39.69157927880686" lon="8.523340354908305"><ele>12.8</ele><time>2026-04-27T11:00:36.869Z</time></trkpt><trkpt lat="39.69158326984677" lon="8.523228892343559"><ele>12.0</ele><time>2026-04-27T11:00:37.869Z</time></trkpt><trkpt lat="39.69158076474253" lon="8.523088531197004"><ele>12.0</ele><time>2026-04-27T11:00:38.869Z</time></trkpt><trkpt lat="39.69157760524049" lon="8.522931616621701"><ele>12.0</ele><time>2026-04-27T11:00:39.869Z</time></trkpt><trkpt lat="39.69157360713287" lon="8.522770579674422"><ele>12.0</ele><time>2026-04-27T11:00:40.869Z</time></trkpt><trkpt lat="39.69157918244964" lon="8.522576735815726"><ele>12.0</ele><time>2026-04-27T11:00:41.869Z</time></trkpt><trkpt lat="39.69158310859958" lon="8.522373263711478"><ele>11.333333333333334</ele><time>2026-04-27T11:00:42.869Z</time></trkpt><trkpt lat="39.69158941712299" lon="8.522165186407776"><ele>10.666666666666668</ele><time>2026-04-27T11:00:43.869Z</time></trkpt><trkpt lat="39.69160316720975" lon="8.521929488016927"><ele>10.0</ele><time>2026-04-27T11:00:44.869Z</time></trkpt><trkpt lat="39.691631113134754" lon="8.52170418278698"><ele>10.0</ele><time>2026-04-27T11:00:45.869Z</time></trkpt><trkpt lat="39.6916716981336" lon="8.521476035180548"><ele>10.0</ele><time>2026-04-27T11:00:46.869Z</time></trkpt><trkpt lat="39.691725230395726" lon="8.521239686791516"><ele>10.0</ele><time>2026-04-27T11:00:47.869Z</time></trkpt><trkpt lat="39.69179086324435" lon="8.521001758750995"><ele>7.0</ele><time>2026-04-27T11:00:48.869Z</time></trkpt><trkpt lat="39.69186293015114" lon="8.520762857428611"><ele>4.0</ele><time>2026-04-27T11:00:49.869Z</time></trkpt><trkpt lat="39.691934538329946" lon="8.520518255226943"><ele>1.0</ele><time>2026-04-27T11:00:50.869Z</time></trkpt><trkpt lat="39.69200473739491" lon="8.520270023827951"><ele>1.0</ele><time>2026-04-27T11:00:51.869Z</time></trkpt><trkpt lat="39.692076650146824" lon="8.520039830808566"><ele>1.0</ele><time>2026-04-27T11:00:52.869Z</time></trkpt><trkpt lat="39.692146295163575" lon="8.519804783862016"><ele>1.0</ele><time>2026-04-27T11:00:53.869Z</time></trkpt><trkpt lat="39.692214316060245" lon="8.519565876242106"><ele>1.6666666666666665</ele><time>2026-04-27T11:00:54.869Z</time></trkpt><trkpt lat="39.692282172335844" lon="8.519321907226093"><ele>2.3333333333333335</ele><time>2026-04-27T11:00:55.869Z</time></trkpt><trkpt lat="39.69235131503363" lon="8.519082230229161"><ele>3.0</ele><time>2026-04-27T11:00:56.869Z</time></trkpt><trkpt lat="39.69242008986936" lon="8.518839519777785"><ele>3.333333333333333</ele><time>2026-04-27T11:00:57.869Z</time></trkpt><trkpt lat="39.69249332092885" lon="8.518598899667461"><ele>3.6666666666666665</ele><time>2026-04-27T11:00:58.869Z</time></trkpt><trkpt lat="39.69256225686517" lon="8.518352844005035"><ele>4.0</ele><time>2026-04-27T11:00:59.869Z</time></trkpt><trkpt lat="39.692627595440804" lon="8.518106970987205"><ele>3.333333333333333</ele><time>2026-04-27T11:01:00.869Z</time></trkpt><trkpt lat="39.692691131593364" lon="8.51786660072636"><ele>2.6666666666666665</ele><time>2026-04-27T11:01:01.869Z</time></trkpt><trkpt lat="39.69275638059368" lon="8.517627086867599"><ele>2.0</ele><time>2026-04-27T11:01:02.869Z</time></trkpt><trkpt lat="39.69282003578926" lon="8.517408522430943"><ele>2.0</ele><time>2026-04-27T11:01:03.869Z</time></trkpt><trkpt lat="39.69288618191399" lon="8.51720473434041"><ele>2.0</ele><time>2026-04-27T11:01:04.869Z</time></trkpt><trkpt lat="39.69296075628822" lon="8.517007953979762"><ele>2.0</ele><time>2026-04-27T11:01:05.869Z</time></trkpt><trkpt lat="39.69304935216142" lon="8.516836249301313"><ele>2.6666666666666665</ele><time>2026-04-27T11:01:06.869Z</time></trkpt><trkpt lat="39.693155656052596" lon="8.516676409322402"><ele>3.333333333333333</ele><time>2026-04-27T11:01:07.869Z</time></trkpt><trkpt lat="39.69327808687059" lon="8.516528419707912"><ele>4.0</ele><time>2026-04-27T11:01:08.869Z</time></trkpt><trkpt lat="39.69341272293382" lon="8.516391816587463"><ele>4.0</ele><time>2026-04-27T11:01:09.869Z</time></trkpt><trkpt lat="39.69351453996231" lon="8.516296554839858"><ele>4.0</ele><time>2026-04-27T11:01:10.869Z</time></trkpt><trkpt lat="39.69359225930779" lon="8.516220455611398"><ele>4.0</ele><time>2026-04-27T11:01:11.869Z</time></trkpt><trkpt lat="39.69365268157184" lon="8.516175257472037"><ele>4.0</ele><time>2026-04-27T11:01:12.869Z</time></trkpt><trkpt lat="39.69374891397671" lon="8.516109810170404"><ele>4.0</ele><time>2026-04-27T11:01:14.869Z</time></trkpt><trkpt lat="39.693775827382694" lon="8.516028444003455"><ele>3.9999999999999996</ele><time>2026-04-27T11:01:16.869Z</time></trkpt><trkpt lat="39.69369756709028" lon="8.516112961269508"><ele>4.0</ele><time>2026-04-27T11:01:20.869Z</time></trkpt><trkpt lat="39.69361777364887" lon="8.516122840756253"><ele>4.0</ele><time>2026-04-27T11:01:21.869Z</time></trkpt><trkpt lat="39.69356600638182" lon="8.516189015495097"><ele>4.0</ele><time>2026-04-27T11:01:22.869Z</time></trkpt><trkpt lat="39.69350842194175" lon="8.516264245153867"><ele>3.9999999999999996</ele><time>2026-04-27T11:01:23.869Z</time></trkpt><trkpt lat="39.69344274564797" lon="8.516346188059702"><ele>4.0</ele><time>2026-04-27T11:01:24.869Z</time></trkpt><trkpt lat="39.69338515823823" lon="8.516409503675007"><ele>4.0</ele><time>2026-04-27T11:01:25.869Z</time></trkpt><trkpt lat="39.69329974442218" lon="8.516410732262772"><ele>4.0</ele><time>2026-04-27T11:01:27.869Z</time></trkpt><trkpt lat="39.69327717876498" lon="8.516283854641616"><ele>4.0</ele><time>2026-04-27T11:01:29.869Z</time></trkpt><trkpt lat="39.69325628037072" lon="8.516183453191223"><ele>4.0</ele><time>2026-04-27T11:01:30.869Z</time></trkpt><trkpt lat="39.693275050261256" lon="8.516061814611334"><ele>4.0</ele><time>2026-04-27T11:01:31.869Z</time></trkpt><trkpt lat="39.693301223376935" lon="8.515930672216518"><ele>4.75</ele><time>2026-04-27T11:01:32.869Z</time></trkpt><trkpt lat="39.69333944819153" lon="8.515793367219938"><ele>5.5</ele><time>2026-04-27T11:01:33.869Z</time></trkpt><trkpt lat="39.693379949836796" lon="8.515648474512973"><ele>6.25</ele><time>2026-04-27T11:01:34.869Z</time></trkpt><trkpt lat="39.693428605166716" lon="8.515485226491558"><ele>7.0</ele><time>2026-04-27T11:01:35.869Z</time></trkpt><trkpt lat="39.6934809508906" lon="8.515298667357476"><ele>7.0</ele><time>2026-04-27T11:01:36.869Z</time></trkpt><trkpt lat="39.69353430994902" lon="8.51511225868984"><ele>7.0</ele><time>2026-04-27T11:01:37.869Z</time></trkpt><trkpt lat="39.69359272813781" lon="8.514917443776813"><ele>7.0</ele><time>2026-04-27T11:01:38.869Z</time></trkpt><trkpt lat="39.69365382982913" lon="8.514718327475665"><ele>7.0</ele><time>2026-04-27T11:01:39.869Z</time></trkpt><trkpt lat="39.693720482302425" lon="8.514524042875916"><ele>7.0</ele><time>2026-04-27T11:01:40.869Z</time></trkpt><trkpt lat="39.69378891416205" lon="8.514357513796787"><ele>7.0</ele><time>2026-04-27T11:01:41.869Z</time></trkpt><trkpt lat="39.6938587400089" lon="8.514196911912622"><ele>7.0</ele><time>2026-04-27T11:01:42.869Z</time></trkpt><trkpt lat="39.69393836402952" lon="8.514009533232985"><ele>7.0</ele><time>2026-04-27T11:01:43.869Z</time></trkpt><trkpt lat="39.69402065771182" lon="8.513819478614499"><ele>7.0</ele><time>2026-04-27T11:01:44.869Z</time></trkpt><trkpt lat="39.69411861784585" lon="8.5136407149903"><ele>7.666666666666667</ele><time>2026-04-27T11:01:45.869Z</time></trkpt><trkpt lat="39.69419050203948" lon="8.513438870897813"><ele>8.333333333333334</ele><time>2026-04-27T11:01:46.869Z</time></trkpt><trkpt lat="39.69428779303923" lon="8.513264076288497"><ele>9.0</ele><time>2026-04-27T11:01:47.869Z</time></trkpt><trkpt lat="39.69436247744492" lon="8.513064820001793"><ele>8.0</ele><time>2026-04-27T11:01:48.869Z</time></trkpt><trkpt lat="39.69444549407755" lon="8.512866465311678"><ele>7.0</ele><time>2026-04-27T11:01:49.869Z</time></trkpt><trkpt lat="39.69452032456115" lon="8.512666792221406"><ele>6.0</ele><time>2026-04-27T11:01:50.869Z</time></trkpt><trkpt lat="39.69458680069071" lon="8.512458442664657"><ele>6.0</ele><time>2026-04-27T11:01:51.869Z</time></trkpt><trkpt lat="39.69464966069141" lon="8.512260799792237"><ele>6.0</ele><time>2026-04-27T11:01:52.869Z</time></trkpt><trkpt lat="39.69471108757044" lon="8.512061393893593"><ele>6.0</ele><time>2026-04-27T11:01:53.869Z</time></trkpt><trkpt lat="39.69477888835033" lon="8.511855281575412"><ele>7.0</ele><time>2026-04-27T11:01:54.869Z</time></trkpt><trkpt lat="39.69484966185254" lon="8.511643237580113"><ele>8.0</ele><time>2026-04-27T11:01:55.869Z</time></trkpt><trkpt lat="39.69491231368075" lon="8.511445802783793"><ele>9.0</ele><time>2026-04-27T11:01:56.869Z</time></trkpt><trkpt lat="39.694981312064044" lon="8.511239427132"><ele>10.0</ele><time>2026-04-27T11:01:57.869Z</time></trkpt><trkpt lat="39.695042601469865" lon="8.51103911707889"><ele>11.0</ele><time>2026-04-27T11:01:58.869Z</time></trkpt><trkpt lat="39.69510661542003" lon="8.510838331634579"><ele>12.0</ele><time>2026-04-27T11:01:59.869Z</time></trkpt><trkpt lat="39.695171401142076" lon="8.510643358393207"><ele>12.0</ele><time>2026-04-27T11:02:00.87Z</time></trkpt><trkpt lat="39.695237164196456" lon="8.510435988249366"><ele>12.0</ele><time>2026-04-27T11:02:01.867Z</time></trkpt><trkpt lat="39.69529557764312" lon="8.510247714921155"><ele>12.0</ele><time>2026-04-27T11:02:02.867Z</time></trkpt><trkpt lat="39.695343005950946" lon="8.510045997039596"><ele>12.333333333333332</ele><time>2026-04-27T11:02:03.867Z</time></trkpt><trkpt lat="39.695372898172856" lon="8.509859670455437"><ele>12.666666666666666</ele><time>2026-04-27T11:02:04.868Z</time></trkpt><trkpt lat="39.69538405513914" lon="8.50965853215376"><ele>13.0</ele><time>2026-04-27T11:02:05.867Z</time></trkpt><trkpt lat="39.695383244142675" lon="8.509458648021225"><ele>13.25</ele><time>2026-04-27T11:02:06.867Z</time></trkpt><trkpt lat="39.695382270503785" lon="8.50927294160131"><ele>13.5</ele><time>2026-04-27T11:02:07.867Z</time></trkpt><trkpt lat="39.69536338735725" lon="8.509085009007485"><ele>13.75</ele><time>2026-04-27T11:02:08.868Z</time></trkpt><trkpt lat="39.695340336497814" lon="8.508913827520546"><ele>14.0</ele><time>2026-04-27T11:02:09.868Z</time></trkpt><trkpt lat="39.6953312984103" lon="8.508754801415881"><ele>14.0</ele><time>2026-04-27T11:02:10.868Z</time></trkpt><trkpt lat="39.6953347739937" lon="8.508612237351297"><ele>13.999999999999998</ele><time>2026-04-27T11:02:11.868Z</time></trkpt><trkpt lat="39.6953349741806" lon="8.508471136233814"><ele>13.999999999999998</ele><time>2026-04-27T11:02:12.868Z</time></trkpt><trkpt lat="39.69535109068083" lon="8.508320015407206"><ele>14.0</ele><time>2026-04-27T11:02:13.868Z</time></trkpt><trkpt lat="39.69538803058453" lon="8.508183820945614"><ele>14.0</ele><time>2026-04-27T11:02:14.868Z</time></trkpt><trkpt lat="39.69541373370527" lon="8.508050613080139"><ele>14.25</ele><time>2026-04-27T11:02:15.868Z</time></trkpt><trkpt lat="39.69541094138251" lon="8.507900517374162"><ele>14.5</ele><time>2026-04-27T11:02:16.868Z</time></trkpt><trkpt lat="39.695411671928824" lon="8.507754627488122"><ele>14.75</ele><time>2026-04-27T11:02:17.868Z</time></trkpt><trkpt lat="39.695424143155186" lon="8.507514397990901"><ele>15.0</ele><time>2026-04-27T11:02:18.868Z</time></trkpt><trkpt lat="39.69540166675156" lon="8.507338084473917"><ele>15.0</ele><time>2026-04-27T11:02:19.868Z</time></trkpt><trkpt lat="39.69536642351263" lon="8.507160266378351"><ele>15.0</ele><time>2026-04-27T11:02:20.868Z</time></trkpt><trkpt lat="39.69531920317507" lon="8.506985128274728"><ele>15.0</ele><time>2026-04-27T11:02:21.868Z</time></trkpt><trkpt lat="39.69523552325842" lon="8.506835836912048"><ele>15.0</ele><time>2026-04-27T11:02:22.868Z</time></trkpt><trkpt lat="39.695163697027596" lon="8.506671877584374"><ele>15.75</ele><time>2026-04-27T11:02:23.868Z</time></trkpt><trkpt lat="39.69506972099635" lon="8.506522431834995"><ele>16.5</ele><time>2026-04-27T11:02:24.868Z</time></trkpt><trkpt lat="39.69499809135225" lon="8.506357280013153"><ele>17.25</ele><time>2026-04-27T11:02:25.868Z</time></trkpt><trkpt lat="39.6949269247025" lon="8.506187908272096"><ele>18.0</ele><time>2026-04-27T11:02:26.868Z</time></trkpt><trkpt lat="39.694858971926564" lon="8.506023685954855"><ele>18.0</ele><time>2026-04-27T11:02:27.868Z</time></trkpt><trkpt lat="39.69478013056168" lon="8.505871845803732"><ele>18.0</ele><time>2026-04-27T11:02:28.868Z</time></trkpt><trkpt lat="39.69467638506546" lon="8.5057647727856"><ele>18.0</ele><time>2026-04-27T11:02:29.868Z</time></trkpt><trkpt lat="39.6945642420456" lon="8.505644026274283"><ele>18.0</ele><time>2026-04-27T11:02:30.868Z</time></trkpt><trkpt lat="39.69444869835713" lon="8.505530910342385"><ele>18.0</ele><time>2026-04-27T11:02:31.868Z</time></trkpt><trkpt lat="39.69433416878369" lon="8.505422895649987"><ele>18.0</ele><time>2026-04-27T11:02:32.868Z</time></trkpt><trkpt lat="39.694215094842406" lon="8.505310211253324"><ele>18.0</ele><time>2026-04-27T11:02:33.868Z</time></trkpt><trkpt lat="39.694096304751376" lon="8.505205009880308"><ele>18.0</ele><time>2026-04-27T11:02:34.868Z</time></trkpt><trkpt lat="39.69398233646882" lon="8.505124260794199"><ele>18.0</ele><time>2026-04-27T11:02:35.868Z</time></trkpt><trkpt lat="39.693877668525815" lon="8.505058258798291"><ele>18.0</ele><time>2026-04-27T11:02:36.868Z</time></trkpt><trkpt lat="39.69376203222627" lon="8.504998731762191"><ele>18.0</ele><time>2026-04-27T11:02:37.868Z</time></trkpt><trkpt lat="39.69365906054576" lon="8.504932279452973"><ele>18.0</ele><time>2026-04-27T11:02:38.868Z</time></trkpt><trkpt lat="39.69358594533643" lon="8.504831662074672"><ele>18.75</ele><time>2026-04-27T11:02:39.868Z</time></trkpt><trkpt lat="39.693513487621296" lon="8.504717038243811"><ele>19.5</ele><time>2026-04-27T11:02:40.868Z</time></trkpt><trkpt lat="39.69342835582938" lon="8.504593988617417"><ele>20.25</ele><time>2026-04-27T11:02:41.868Z</time></trkpt><trkpt lat="39.69335997236549" lon="8.504450880511369"><ele>21.0</ele><time>2026-04-27T11:02:42.868Z</time></trkpt><trkpt lat="39.69326371546805" lon="8.504329768620332"><ele>21.0</ele><time>2026-04-27T11:02:43.868Z</time></trkpt><trkpt lat="39.693179864695004" lon="8.504210784892875"><ele>21.0</ele><time>2026-04-27T11:02:44.868Z</time></trkpt><trkpt lat="39.69309889865933" lon="8.504120956247606"><ele>21.0</ele><time>2026-04-27T11:02:45.868Z</time></trkpt><trkpt lat="39.693017230724706" lon="8.504043348393544"><ele>21.0</ele><time>2026-04-27T11:02:46.868Z</time></trkpt><trkpt lat="39.69293266436116" lon="8.503980267494898"><ele>21.0</ele><time>2026-04-27T11:02:47.868Z</time></trkpt><trkpt lat="39.69284669053375" lon="8.503910025197905"><ele>21.0</ele><time>2026-04-27T11:02:48.868Z</time></trkpt><trkpt lat="39.69276492022102" lon="8.503821637775587"><ele>21.0</ele><time>2026-04-27T11:02:49.868Z</time></trkpt><trkpt lat="39.692685109592446" lon="8.503764374124792"><ele>21.0</ele><time>2026-04-27T11:02:50.868Z</time></trkpt><trkpt lat="39.69262455353548" lon="8.503730029094129"><ele>21.0</ele><time>2026-04-27T11:02:51.868Z</time></trkpt><trkpt lat="39.692568455575696" lon="8.503662071023324"><ele>21.0</ele><time>2026-04-27T11:02:53.868Z</time></trkpt><trkpt lat="39.69248383977836" lon="8.503781461914222"><ele>21.142857142857142</ele><time>2026-04-27T11:02:54.868Z</time></trkpt><trkpt lat="39.692417650188744" lon="8.503804327054766"><ele>21.285714285714285</ele><time>2026-04-27T11:02:55.868Z</time></trkpt><trkpt lat="39.692354044289566" lon="8.50384600563519"><ele>21.42857142857143</ele><time>2026-04-27T11:02:56.868Z</time></trkpt><trkpt lat="39.692289803657225" lon="8.503888719059264"><ele>21.57142857142857</ele><time>2026-04-27T11:02:57.868Z</time></trkpt><trkpt lat="39.69223079558142" lon="8.503936404731103"><ele>21.714285714285715</ele><time>2026-04-27T11:02:58.868Z</time></trkpt><trkpt lat="39.69215643896989" lon="8.50396009741481"><ele>21.857142857142858</ele><time>2026-04-27T11:02:59.868Z</time></trkpt><trkpt lat="39.692072831408076" lon="8.503976488425945"><ele>22.0</ele><time>2026-04-27T11:03:00.868Z</time></trkpt><trkpt lat="39.69199570285246" lon="8.503971736745433"><ele>22.0</ele><time>2026-04-27T11:03:01.868Z</time></trkpt><trkpt lat="39.69192980143435" lon="8.503948024852235"><ele>22.0</ele><time>2026-04-27T11:03:02.868Z</time></trkpt><trkpt lat="39.6918617397595" lon="8.503905192359683"><ele>22.0</ele><time>2026-04-27T11:03:03.868Z</time></trkpt><trkpt lat="39.691793306303026" lon="8.503848589289625"><ele>22.0</ele><time>2026-04-27T11:03:04.868Z</time></trkpt><trkpt lat="39.69170694735713" lon="8.503817434352477"><ele>22.0</ele><time>2026-04-27T11:03:05.868Z</time></trkpt><trkpt lat="39.691620971196315" lon="8.503770807269534"><ele>22.0</ele><time>2026-04-27T11:03:06.868Z</time></trkpt><trkpt lat="39.69153081301669" lon="8.503724192031829"><ele>22.6</ele><time>2026-04-27T11:03:07.868Z</time></trkpt><trkpt lat="39.69144124573899" lon="8.503680926468741"><ele>23.200000000000003</ele><time>2026-04-27T11:03:08.868Z</time></trkpt><trkpt lat="39.69135065765487" lon="8.503640964589264"><ele>23.8</ele><time>2026-04-27T11:03:09.868Z</time></trkpt><trkpt lat="39.69126093973493" lon="8.503593079450159"><ele>24.4</ele><time>2026-04-27T11:03:10.868Z</time></trkpt><trkpt lat="39.691166916959084" lon="8.503542727983758"><ele>25.0</ele><time>2026-04-27T11:03:11.868Z</time></trkpt><trkpt lat="39.6910744828981" lon="8.50349437599262"><ele>25.8</ele><time>2026-04-27T11:03:12.868Z</time></trkpt><trkpt lat="39.69098189335386" lon="8.503445396640451"><ele>26.6</ele><time>2026-04-27T11:03:13.868Z</time></trkpt><trkpt lat="39.69088524327507" lon="8.503399996379105"><ele>27.4</ele><time>2026-04-27T11:03:14.868Z</time></trkpt><trkpt lat="39.69078483996998" lon="8.503361868526149"><ele>28.2</ele><time>2026-04-27T11:03:15.868Z</time></trkpt><trkpt lat="39.69068857536375" lon="8.503327702311669"><ele>29.0</ele><time>2026-04-27T11:03:16.868Z</time></trkpt><trkpt lat="39.690593523476274" lon="8.503305046241696"><ele>29.0</ele><time>2026-04-27T11:03:17.868Z</time></trkpt><trkpt lat="39.69049652293927" lon="8.503305086733224"><ele>29.0</ele><time>2026-04-27T11:03:18.868Z</time></trkpt><trkpt lat="39.69038406110187" lon="8.503299357522929"><ele>29.0</ele><time>2026-04-27T11:03:19.868Z</time></trkpt><trkpt lat="39.69027395777738" lon="8.503284362353297"><ele>29.0</ele><time>2026-04-27T11:03:20.868Z</time></trkpt><trkpt lat="39.690175707163384" lon="8.503262047049466"><ele>29.0</ele><time>2026-04-27T11:03:21.868Z</time></trkpt><trkpt lat="39.69008177644539" lon="8.50323032031042"><ele>30.2</ele><time>2026-04-27T11:03:22.868Z</time></trkpt><trkpt lat="39.68998699555786" lon="8.50317258748519"><ele>31.4</ele><time>2026-04-27T11:03:23.868Z</time></trkpt><trkpt lat="39.689896333726885" lon="8.503105265967575"><ele>32.6</ele><time>2026-04-27T11:03:24.868Z</time></trkpt><trkpt lat="39.68980325414984" lon="8.503050551123911"><ele>33.8</ele><time>2026-04-27T11:03:25.868Z</time></trkpt><trkpt lat="39.68970574016659" lon="8.5029954585043"><ele>35.0</ele><time>2026-04-27T11:03:26.868Z</time></trkpt><trkpt lat="39.689612634034845" lon="8.50293870252909"><ele>34.83333333333333</ele><time>2026-04-27T11:03:27.868Z</time></trkpt><trkpt lat="39.689529293649166" lon="8.502889582803409"><ele>34.666666666666664</ele><time>2026-04-27T11:03:28.868Z</time></trkpt><trkpt lat="39.689443830174724" lon="8.502836413628534"><ele>34.5</ele><time>2026-04-27T11:03:29.868Z</time></trkpt><trkpt lat="39.68936626362966" lon="8.502791394568101"><ele>34.333333333333336</ele><time>2026-04-27T11:03:30.868Z</time></trkpt><trkpt lat="39.68928994182853" lon="8.50276704218788"><ele>34.16666666666667</ele><time>2026-04-27T11:03:31.868Z</time></trkpt><trkpt lat="39.68919765854216" lon="8.502755834367782"><ele>34.0</ele><time>2026-04-27T11:03:32.869Z</time></trkpt><trkpt lat="39.68910531453588" lon="8.502764111620415"><ele>33.8</ele><time>2026-04-27T11:03:33.869Z</time></trkpt><trkpt lat="39.68902995461131" lon="8.502796582795018"><ele>33.599999999999994</ele><time>2026-04-27T11:03:34.869Z</time></trkpt><trkpt lat="39.68895801443989" lon="8.502858709705265"><ele>33.4</ele><time>2026-04-27T11:03:35.869Z</time></trkpt><trkpt lat="39.68888616677524" lon="8.502935180622407"><ele>33.199999999999996</ele><time>2026-04-27T11:03:36.869Z</time></trkpt><trkpt lat="39.688808331644005" lon="8.503012356922525"><ele>33.0</ele><time>2026-04-27T11:03:37.869Z</time></trkpt><trkpt lat="39.68873184443042" lon="8.503089106991167"><ele>33.8</ele><time>2026-04-27T11:03:38.869Z</time></trkpt><trkpt lat="39.68866734485305" lon="8.503173949815812"><ele>34.599999999999994</ele><time>2026-04-27T11:03:39.869Z</time></trkpt><trkpt lat="39.68857858060935" lon="8.503274711851027"><ele>35.400000000000006</ele><time>2026-04-27T11:03:40.869Z</time></trkpt><trkpt lat="39.68848692261986" lon="8.503377498896157"><ele>36.2</ele><time>2026-04-27T11:03:41.869Z</time></trkpt><trkpt lat="39.68841347282591" lon="8.503476760188544"><ele>37.0</ele><time>2026-04-27T11:03:42.869Z</time></trkpt><trkpt lat="39.688355348344636" lon="8.503567905539002"><ele>37.142857142857146</ele><time>2026-04-27T11:03:43.869Z</time></trkpt><trkpt lat="39.68830606666866" lon="8.503651884593054"><ele>37.285714285714285</ele><time>2026-04-27T11:03:44.869Z</time></trkpt><trkpt lat="39.688257463407815" lon="8.503709685192499"><ele>37.42857142857143</ele><time>2026-04-27T11:03:45.869Z</time></trkpt><trkpt lat="39.68819953686309" lon="8.503760119564394"><ele>37.57142857142857</ele><time>2026-04-27T11:03:46.869Z</time></trkpt><trkpt lat="39.68814182652459" lon="8.503805751836289"><ele>37.714285714285715</ele><time>2026-04-27T11:03:47.869Z</time></trkpt><trkpt lat="39.68807991160949" lon="8.50386544364775"><ele>37.857142857142854</ele><time>2026-04-27T11:03:48.869Z</time></trkpt><trkpt lat="39.68800813022695" lon="8.503916032583057"><ele>38.0</ele><time>2026-04-27T11:03:49.869Z</time></trkpt><trkpt lat="39.68792650846074" lon="8.503948186329742"><ele>38.0</ele><time>2026-04-27T11:03:50.869Z</time></trkpt><trkpt lat="39.68783441723242" lon="8.503961578766583"><ele>38.0</ele><time>2026-04-27T11:03:51.869Z</time></trkpt><trkpt lat="39.68775027502569" lon="8.503980160221497"><ele>38.0</ele><time>2026-04-27T11:03:52.869Z</time></trkpt><trkpt lat="39.68766360766616" lon="8.503991514162925"><ele>38.0</ele><time>2026-04-27T11:03:53.869Z</time></trkpt><trkpt lat="39.68758127855428" lon="8.503974782111799"><ele>38.0</ele><time>2026-04-27T11:03:54.869Z</time></trkpt><trkpt lat="39.68751237048139" lon="8.503954969386337"><ele>38.0</ele><time>2026-04-27T11:03:55.869Z</time></trkpt><trkpt lat="39.687385415706295" lon="8.503912248250705"><ele>38.14285714285714</ele><time>2026-04-27T11:03:57.869Z</time></trkpt><trkpt lat="39.68731625476097" lon="8.503880688622298"><ele>38.28571428571429</ele><time>2026-04-27T11:03:58.869Z</time></trkpt><trkpt lat="39.687249436133634" lon="8.503837595982317"><ele>38.42857142857143</ele><time>2026-04-27T11:03:59.869Z</time></trkpt><trkpt lat="39.687193546039246" lon="8.503797160021094"><ele>38.57142857142857</ele><time>2026-04-27T11:04:00.869Z</time></trkpt><trkpt lat="39.68713119338924" lon="8.503759385544907"><ele>38.71428571428571</ele><time>2026-04-27T11:04:02.869Z</time></trkpt><trkpt lat="39.68708409415822" lon="8.503680998901471"><ele>38.85714285714286</ele><time>2026-04-27T11:04:06.869Z</time></trkpt><trkpt lat="39.687047107980966" lon="8.503601384745734"><ele>39.0</ele><time>2026-04-27T11:04:08.867Z</time></trkpt><trkpt lat="39.686993000704334" lon="8.503473371152811"><ele>40.2</ele><time>2026-04-27T11:04:10.867Z</time></trkpt><trkpt lat="39.68693742563901" lon="8.503346841875628"><ele>41.4</ele><time>2026-04-27T11:04:12.867Z</time></trkpt><trkpt lat="39.686900263646365" lon="8.503279021159225"><ele>42.6</ele><time>2026-04-27T11:04:13.867Z</time></trkpt><trkpt lat="39.686852197108735" lon="8.503223519877366"><ele>43.8</ele><time>2026-04-27T11:04:14.866Z</time></trkpt><trkpt lat="39.68676269504552" lon="8.503138579633996"><ele>45.0</ele><time>2026-04-27T11:04:16.866Z</time></trkpt><trkpt lat="39.68666593612358" lon="8.503045556428804"><ele>45.0</ele><time>2026-04-27T11:04:18.867Z</time></trkpt><trkpt lat="39.68655821786153" lon="8.502998535344414"><ele>45.0</ele><time>2026-04-27T11:04:20.867Z</time></trkpt><trkpt lat="39.68648917124701" lon="8.502972493662215"><ele>45.0</ele><time>2026-04-27T11:04:21.867Z</time></trkpt><trkpt lat="39.68641145447941" lon="8.502934768796711"><ele>45.0</ele><time>2026-04-27T11:04:22.867Z</time></trkpt><trkpt lat="39.68632791844378" lon="8.502903950707525"><ele>45.0</ele><time>2026-04-27T11:04:23.867Z</time></trkpt><trkpt lat="39.68625074311359" lon="8.502875747177628"><ele>45.0</ele><time>2026-04-27T11:04:24.867Z</time></trkpt><trkpt lat="39.686165257988684" lon="8.502844513413198"><ele>46.0</ele><time>2026-04-27T11:04:25.867Z</time></trkpt><trkpt lat="39.686078270256466" lon="8.502810491228267"><ele>47.0</ele><time>2026-04-27T11:04:26.867Z</time></trkpt><trkpt lat="39.6860028511778" lon="8.50278995969165"><ele>48.0</ele><time>2026-04-27T11:04:27.867Z</time></trkpt><trkpt lat="39.685923810203114" lon="8.502786860877519"><ele>49.0</ele><time>2026-04-27T11:04:29.867Z</time></trkpt><trkpt lat="39.685860765650574" lon="8.502859969650629"><ele>50.0</ele><time>2026-04-27T11:04:32.867Z</time></trkpt><trkpt lat="39.68578205394306" lon="8.502986974265616"><ele>50.00000000000001</ele><time>2026-04-27T11:04:34.867Z</time></trkpt><trkpt lat="39.685746456767276" lon="8.503067701225055"><ele>50.0</ele><time>2026-04-27T11:04:35.867Z</time></trkpt><trkpt lat="39.685716622667414" lon="8.503155764603429"><ele>50.0</ele><time>2026-04-27T11:04:36.867Z</time></trkpt><trkpt lat="39.68567767791867" lon="8.503244610042985"><ele>50.0</ele><time>2026-04-27T11:04:37.867Z</time></trkpt><trkpt lat="39.68562591204059" lon="8.503331728659617"><ele>50.00000000000001</ele><time>2026-04-27T11:04:38.867Z</time></trkpt><trkpt lat="39.685572935199495" lon="8.503411047890093"><ele>50.0</ele><time>2026-04-27T11:04:39.867Z</time></trkpt><trkpt lat="39.68552001407114" lon="8.503494233643801"><ele>50.0</ele><time>2026-04-27T11:04:40.867Z</time></trkpt><trkpt lat="39.68545972187228" lon="8.503572727584972"><ele>50.0</ele><time>2026-04-27T11:04:41.867Z</time></trkpt><trkpt lat="39.685402797407065" lon="8.503634312841847"><ele>50.0</ele><time>2026-04-27T11:04:42.867Z</time></trkpt><trkpt lat="39.68526412026614" lon="8.503665675288685"><ele>50.0</ele><time>2026-04-27T11:04:44.867Z</time></trkpt><trkpt lat="39.68516807382971" lon="8.503653752183112"><ele>50.0</ele><time>2026-04-27T11:04:45.867Z</time></trkpt><trkpt lat="39.68507578651358" lon="8.503648130692348"><ele>50.8</ele><time>2026-04-27T11:04:46.867Z</time></trkpt><trkpt lat="39.684976874567546" lon="8.503661504085189"><ele>51.6</ele><time>2026-04-27T11:04:47.867Z</time></trkpt><trkpt lat="39.684874995770144" lon="8.503680459898499"><ele>52.400000000000006</ele><time>2026-04-27T11:04:48.867Z</time></trkpt><trkpt lat="39.68477847416557" lon="8.503686189930587"><ele>53.2</ele><time>2026-04-27T11:04:49.867Z</time></trkpt><trkpt lat="39.684680526786586" lon="8.503679962533544"><ele>54.0</ele><time>2026-04-27T11:04:50.867Z</time></trkpt><trkpt lat="39.68458066906742" lon="8.503683122870074"><ele>54.0</ele><time>2026-04-27T11:04:51.867Z</time></trkpt><trkpt lat="39.68450119422288" lon="8.503699424305227"><ele>54.0</ele><time>2026-04-27T11:04:52.867Z</time></trkpt><trkpt lat="39.684432206125976" lon="8.5037418286357"><ele>54.0</ele><time>2026-04-27T11:04:53.867Z</time></trkpt><trkpt lat="39.68436454293087" lon="8.503804093899651"><ele>54.0</ele><time>2026-04-27T11:04:54.867Z</time></trkpt><trkpt lat="39.68429599289716" lon="8.503844527937641"><ele>54.0</ele><time>2026-04-27T11:04:55.867Z</time></trkpt><trkpt lat="39.68422670664485" lon="8.503858701819773"><ele>54.0</ele><time>2026-04-27T11:04:56.867Z</time></trkpt><trkpt lat="39.684158707693044" lon="8.503861408378205"><ele>54.5</ele><time>2026-04-27T11:04:57.867Z</time></trkpt><trkpt lat="39.68404362006332" lon="8.503904944891264"><ele>55.0</ele><time>2026-04-27T11:04:59.867Z</time></trkpt><trkpt lat="39.68397601076191" lon="8.50394078861697"><ele>55.5</ele><time>2026-04-27T11:05:00.867Z</time></trkpt><trkpt lat="39.68391187311978" lon="8.503995457381613"><ele>56.0</ele><time>2026-04-27T11:05:01.867Z</time></trkpt><trkpt lat="39.68385575456465" lon="8.50405387465469"><ele>56.5</ele><time>2026-04-27T11:05:02.867Z</time></trkpt><trkpt lat="39.68377912116572" lon="8.5040943679958"><ele>57.0</ele><time>2026-04-27T11:05:04.867Z</time></trkpt><trkpt lat="39.68371317334998" lon="8.504009979241124"><ele>57.0</ele><time>2026-04-27T11:05:07.867Z</time></trkpt><trkpt lat="39.68372359724478" lon="8.503917116797261"><ele>57.0</ele><time>2026-04-27T11:05:09.867Z</time></trkpt><trkpt lat="39.683678436614315" lon="8.503801924968668"><ele>57.0</ele><time>2026-04-27T11:05:11.867Z</time></trkpt><trkpt lat="39.68360888952647" lon="8.503759626955672"><ele>57.0</ele><time>2026-04-27T11:05:13.867Z</time></trkpt><trkpt lat="39.6835188394535" lon="8.503818314631587"><ele>57.0</ele><time>2026-04-27T11:05:15.867Z</time></trkpt><trkpt lat="39.68340873714399" lon="8.503849997646691"><ele>56.8</ele><time>2026-04-27T11:05:17.867Z</time></trkpt><trkpt lat="39.683312618488856" lon="8.503819697632908"><ele>56.6</ele><time>2026-04-27T11:05:19.867Z</time></trkpt><trkpt lat="39.68322984989945" lon="8.503746055757212"><ele>56.39999999999999</ele><time>2026-04-27T11:05:21.867Z</time></trkpt><trkpt lat="39.68313247932945" lon="8.503652125153879"><ele>56.199999999999996</ele><time>2026-04-27T11:05:23.867Z</time></trkpt><trkpt lat="39.6830805646436" lon="8.503584884319254"><ele>56.0</ele><time>2026-04-27T11:05:24.867Z</time></trkpt><trkpt lat="39.68303632710604" lon="8.50351732351634"><ele>56.8</ele><time>2026-04-27T11:05:25.867Z</time></trkpt><trkpt lat="39.68296696811386" lon="8.50339682238107"><ele>57.599999999999994</ele><time>2026-04-27T11:05:27.867Z</time></trkpt><trkpt lat="39.682873792936405" lon="8.503331473447297"><ele>58.4</ele><time>2026-04-27T11:05:29.867Z</time></trkpt><trkpt lat="39.68289640373192" lon="8.503233388072532"><ele>59.2</ele><time>2026-04-27T11:05:41.87Z</time></trkpt><trkpt lat="39.682998674985825" lon="8.503189580042395"><ele>60.0</ele><time>2026-04-27T11:05:43.874Z</time></trkpt><trkpt lat="39.683085291991354" lon="8.503141003716385"><ele>60.0</ele><time>2026-04-27T11:05:45.877Z</time></trkpt><trkpt lat="39.683164780451904" lon="8.503110229178578"><ele>60.0</ele><time>2026-04-27T11:05:47.88Z</time></trkpt><trkpt lat="39.68325353386819" lon="8.503053814741865"><ele>60.0</ele><time>2026-04-27T11:05:50.884Z</time></trkpt><trkpt lat="39.68333119524688" lon="8.502987246091633"><ele>60.0</ele><time>2026-04-27T11:05:52.887Z</time></trkpt><trkpt lat="39.68337766267577" lon="8.502919442557335"><ele>60.0</ele><time>2026-04-27T11:05:54.889Z</time></trkpt><trkpt lat="39.683444734733634" lon="8.502835042191915"><ele>60.0</ele><time>2026-04-27T11:05:56.89Z</time></trkpt><trkpt lat="39.68350329465564" lon="8.502763712460935"><ele>60.0</ele><time>2026-04-27T11:05:58.892Z</time></trkpt><trkpt lat="39.68356258139653" lon="8.502685721406012"><ele>60.0</ele><time>2026-04-27T11:06:00.893Z</time></trkpt><trkpt lat="39.68361424857546" lon="8.502636775547122"><ele>60.0</ele><time>2026-04-27T11:06:02.895Z</time></trkpt><trkpt lat="39.683658843128505" lon="8.5025759335124"><ele>60.0</ele><time>2026-04-27T11:06:05.896Z</time></trkpt><trkpt lat="39.683706139805416" lon="8.502484136815001"><ele>60.0</ele><time>2026-04-27T11:06:13.898Z</time></trkpt><trkpt lat="39.68374229580601" lon="8.502395063717492"><ele>60.0</ele><time>2026-04-27T11:06:15.898Z</time></trkpt><trkpt lat="39.683773502854386" lon="8.502308657124864"><ele>60.0</ele><time>2026-04-27T11:06:17.898Z</time></trkpt><trkpt lat="39.68377803950214" lon="8.502215975374202"><ele>60.5</ele><time>2026-04-27T11:06:19.899Z</time></trkpt><trkpt lat="39.68377291500754" lon="8.50213013495343"><ele>61.0</ele><time>2026-04-27T11:06:21.899Z</time></trkpt><trkpt lat="39.68376435129068" lon="8.502045250628623"><ele>61.5</ele><time>2026-04-27T11:06:23.899Z</time></trkpt><trkpt lat="39.683738084318165" lon="8.501950661636075"><ele>62.0</ele><time>2026-04-27T11:06:25.899Z</time></trkpt><trkpt lat="39.683750085581444" lon="8.501859220284055"><ele>62.5</ele><time>2026-04-27T11:06:27.899Z</time></trkpt><trkpt lat="39.68379325187588" lon="8.501764492721973"><ele>63.0</ele><time>2026-04-27T11:06:30.9Z</time></trkpt><trkpt lat="39.68380091067204" lon="8.501629070444123"><ele>62.333333333333336</ele><time>2026-04-27T11:06:32.9Z</time></trkpt><trkpt lat="39.68379257428549" lon="8.50154764055877"><ele>61.66666666666667</ele><time>2026-04-27T11:06:33.9Z</time></trkpt><trkpt lat="39.68377407360622" lon="8.501466501795298"><ele>61.0</ele><time>2026-04-27T11:06:34.9Z</time></trkpt><trkpt lat="39.683743414076325" lon="8.50135020407584"><ele>60.333333333333336</ele><time>2026-04-27T11:06:36.9Z</time></trkpt><trkpt lat="39.68368265575628" lon="8.501303716098873"><ele>59.66666666666667</ele><time>2026-04-27T11:06:39.901Z</time></trkpt><trkpt lat="39.68358412686735" lon="8.501274793020032"><ele>59.0</ele><time>2026-04-27T11:06:41.901Z</time></trkpt><trkpt lat="39.68352154787264" lon="8.501243408206406"><ele>59.00000000000001</ele><time>2026-04-27T11:06:43.901Z</time></trkpt><trkpt lat="39.683447743581866" lon="8.501187764847241"><ele>59.0</ele><time>2026-04-27T11:06:45.901Z</time></trkpt><trkpt lat="39.68335498127104" lon="8.5010817428491"><ele>59.0</ele><time>2026-04-27T11:06:47.901Z</time></trkpt><trkpt lat="39.68330096910006" lon="8.501013238971645"><ele>59.0</ele><time>2026-04-27T11:06:48.901Z</time></trkpt><trkpt lat="39.68325442360555" lon="8.500952701787881"><ele>59.00000000000001</ele><time>2026-04-27T11:06:49.901Z</time></trkpt><trkpt lat="39.68319102528203" lon="8.500871973030428"><ele>59.0</ele><time>2026-04-27T11:06:51.901Z</time></trkpt><trkpt lat="39.68311414443259" lon="8.50078335611504"><ele>59.00000000000001</ele><time>2026-04-27T11:06:53.901Z</time></trkpt><trkpt lat="39.68302823774304" lon="8.50066420238229"><ele>59.0</ele><time>2026-04-27T11:06:55.901Z</time></trkpt><trkpt lat="39.683015802033665" lon="8.500547983314755"><ele>59.0</ele><time>2026-04-27T11:06:57.901Z</time></trkpt><trkpt lat="39.68302898703051" lon="8.500440305555546"><ele>59.0</ele><time>2026-04-27T11:06:59.901Z</time></trkpt><trkpt lat="39.68301365491858" lon="8.50035891059345"><ele>59.00000000000001</ele><time>2026-04-27T11:07:15.902Z</time></trkpt><trkpt lat="39.68302281644078" lon="8.500266137649325"><ele>59.0</ele><time>2026-04-27T11:08:28.9Z</time></trkpt><trkpt lat="39.68302146516752" lon="8.500142518762384"><ele>59.800000000000004</ele><time>2026-04-27T11:08:56.901Z</time></trkpt><trkpt lat="39.68306379290549" lon="8.500014848650334"><ele>60.60000000000001</ele><time>2026-04-27T11:08:58.901Z</time></trkpt><trkpt lat="39.68310721489511" lon="8.499898521539343"><ele>61.4</ele><time>2026-04-27T11:09:00.901Z</time></trkpt><trkpt lat="39.683098506888264" lon="8.499773379353163"><ele>62.2</ele><time>2026-04-27T11:09:02.901Z</time></trkpt><trkpt lat="39.683064070170374" lon="8.499677168101151"><ele>63.0</ele><time>2026-04-27T11:09:04.901Z</time></trkpt><trkpt lat="39.68307021017327" lon="8.499557886454559"><ele>63.166666666666664</ele><time>2026-04-27T11:09:07.901Z</time></trkpt><trkpt lat="39.68310035375355" lon="8.4994346174306"><ele>63.33333333333333</ele><time>2026-04-27T11:09:09.901Z</time></trkpt><trkpt lat="39.68312574702364" lon="8.499354574095742"><ele>63.5</ele><time>2026-04-27T11:09:10.901Z</time></trkpt><trkpt lat="39.6831384031719" lon="8.499268248664292"><ele>63.666666666666664</ele><time>2026-04-27T11:09:11.901Z</time></trkpt><trkpt lat="39.68313495555361" lon="8.49917764774253"><ele>63.83333333333333</ele><time>2026-04-27T11:09:12.901Z</time></trkpt><trkpt lat="39.68313133733612" lon="8.499060416295835"><ele>64.0</ele><time>2026-04-27T11:09:13.901Z</time></trkpt><trkpt lat="39.683131052029815" lon="8.498940921471483"><ele>63.99999999999999</ele><time>2026-04-27T11:09:14.901Z</time></trkpt><trkpt lat="39.68313524492871" lon="8.498820709016126"><ele>64.0</ele><time>2026-04-27T11:09:15.901Z</time></trkpt><trkpt lat="39.68313787743709" lon="8.498702698033965"><ele>64.0</ele><time>2026-04-27T11:09:16.901Z</time></trkpt><trkpt lat="39.683138457418906" lon="8.498594756171434"><ele>64.0</ele><time>2026-04-27T11:09:17.901Z</time></trkpt><trkpt lat="39.683128589351696" lon="8.498489510322534"><ele>63.99999999999999</ele><time>2026-04-27T11:09:18.901Z</time></trkpt><trkpt lat="39.683122198794614" lon="8.498385045376917"><ele>64.0</ele><time>2026-04-27T11:09:19.901Z</time></trkpt><trkpt lat="39.68313061654958" lon="8.498199033773403"><ele>64.83333333333333</ele><time>2026-04-27T11:09:21.901Z</time></trkpt><trkpt lat="39.68315729680913" lon="8.498119598597652"><ele>65.66666666666666</ele><time>2026-04-27T11:09:22.901Z</time></trkpt><trkpt lat="39.68318824319082" lon="8.498028491967665"><ele>66.5</ele><time>2026-04-27T11:09:23.901Z</time></trkpt><trkpt lat="39.68320219988969" lon="8.497930618009013"><ele>67.33333333333333</ele><time>2026-04-27T11:09:24.901Z</time></trkpt><trkpt lat="39.683200141032515" lon="8.497823481982769"><ele>68.16666666666667</ele><time>2026-04-27T11:09:25.901Z</time></trkpt><trkpt lat="39.683188967331965" lon="8.49773102333255"><ele>69.0</ele><time>2026-04-27T11:09:26.901Z</time></trkpt><trkpt lat="39.68315616691854" lon="8.497640900744775"><ele>69.0</ele><time>2026-04-27T11:09:27.901Z</time></trkpt><trkpt lat="39.68310695692566" lon="8.497558716927015"><ele>69.0</ele><time>2026-04-27T11:09:28.901Z</time></trkpt><trkpt lat="39.683048733003076" lon="8.49748584373855"><ele>69.0</ele><time>2026-04-27T11:09:29.901Z</time></trkpt><trkpt lat="39.682987981365194" lon="8.497424878691936"><ele>69.0</ele><time>2026-04-27T11:09:30.901Z</time></trkpt><trkpt lat="39.68289893742136" lon="8.49731268551561"><ele>69.0</ele><time>2026-04-27T11:09:32.901Z</time></trkpt><trkpt lat="39.68281283882167" lon="8.497244703914284"><ele>68.0</ele><time>2026-04-27T11:09:34.901Z</time></trkpt><trkpt lat="39.68270578149163" lon="8.497276290505445"><ele>67.0</ele><time>2026-04-27T11:09:36.901Z</time></trkpt><trkpt lat="39.68262978066119" lon="8.49731069759097"><ele>66.0</ele><time>2026-04-27T11:09:37.901Z</time></trkpt><trkpt lat="39.682549458671424" lon="8.49735716839982"><ele>65.0</ele><time>2026-04-27T11:09:38.901Z</time></trkpt><trkpt lat="39.68247197387776" lon="8.497417463571635"><ele>64.0</ele><time>2026-04-27T11:09:39.901Z</time></trkpt><trkpt lat="39.6823971067385" lon="8.497475779229257"><ele>63.99999999999999</ele><time>2026-04-27T11:09:40.901Z</time></trkpt><trkpt lat="39.68233045429335" lon="8.497525484720128"><ele>64.0</ele><time>2026-04-27T11:09:41.901Z</time></trkpt><trkpt lat="39.68227154381347" lon="8.497561568250672"><ele>64.0</ele><time>2026-04-27T11:09:42.901Z</time></trkpt><trkpt lat="39.68217019983115" lon="8.497573656836199"><ele>64.0</ele><time>2026-04-27T11:09:44.901Z</time></trkpt><trkpt lat="39.682051999111856" lon="8.497560478581274"><ele>63.99999999999999</ele><time>2026-04-27T11:09:46.901Z</time></trkpt><trkpt lat="39.6819875676627" lon="8.497570533230919"><ele>64.0</ele><time>2026-04-27T11:09:47.901Z</time></trkpt><trkpt lat="39.68186577406498" lon="8.49762042506994"><ele>65.2</ele><time>2026-04-27T11:09:49.901Z</time></trkpt><trkpt lat="39.68179994013495" lon="8.497680157066862"><ele>66.4</ele><time>2026-04-27T11:09:50.901Z</time></trkpt><trkpt lat="39.68173756754259" lon="8.497737892500847"><ele>67.6</ele><time>2026-04-27T11:09:51.901Z</time></trkpt><trkpt lat="39.68165423451202" lon="8.497755751951622"><ele>68.8</ele><time>2026-04-27T11:09:53.901Z</time></trkpt><trkpt lat="39.68157383826721" lon="8.497726437432377"><ele>70.0</ele><time>2026-04-27T11:09:55.901Z</time></trkpt><trkpt lat="39.6814431659415" lon="8.497755176409854"><ele>70.0</ele><time>2026-04-27T11:09:57.901Z</time></trkpt><trkpt lat="39.681369294423156" lon="8.49779058874731"><ele>70.0</ele><time>2026-04-27T11:09:58.901Z</time></trkpt><trkpt lat="39.68130291674727" lon="8.497825957318092"><ele>70.0</ele><time>2026-04-27T11:09:59.901Z</time></trkpt><trkpt lat="39.681238399294834" lon="8.497857557917246"><ele>70.0</ele><time>2026-04-27T11:10:00.901Z</time></trkpt><trkpt lat="39.6811297365442" lon="8.497915003005723"><ele>70.0</ele><time>2026-04-27T11:10:02.901Z</time></trkpt><trkpt lat="39.68104938729759" lon="8.4979698187893"><ele>70.0</ele><time>2026-04-27T11:10:04.901Z</time></trkpt><trkpt lat="39.68097207189194" lon="8.498064276814713"><ele>70.8</ele><time>2026-04-27T11:10:06.902Z</time></trkpt><trkpt lat="39.68088223335836" lon="8.498105681680885"><ele>71.6</ele><time>2026-04-27T11:10:08.902Z</time></trkpt><trkpt lat="39.68076772873769" lon="8.498130634362898"><ele>72.4</ele><time>2026-04-27T11:10:10.902Z</time></trkpt><trkpt lat="39.68066294293592" lon="8.498135112505032"><ele>73.2</ele><time>2026-04-27T11:10:12.902Z</time></trkpt><trkpt lat="39.68054416459262" lon="8.498156122215136"><ele>74.0</ele><time>2026-04-27T11:10:14.902Z</time></trkpt><trkpt lat="39.68043690610769" lon="8.49820008479065"><ele>74.0</ele><time>2026-04-27T11:10:16.902Z</time></trkpt><trkpt lat="39.68034561177902" lon="8.498258963857218"><ele>74.0</ele><time>2026-04-27T11:10:18.902Z</time></trkpt><trkpt lat="39.68023550867877" lon="8.498330909559488"><ele>74.0</ele><time>2026-04-27T11:10:20.902Z</time></trkpt><trkpt lat="39.680141730278635" lon="8.498369445925498"><ele>74.0</ele><time>2026-04-27T11:10:22.902Z</time></trkpt><trkpt lat="39.680029988349006" lon="8.498407287054984"><ele>74.0</ele><time>2026-04-27T11:10:24.9Z</time></trkpt><trkpt lat="39.6799679013447" lon="8.498444783613811"><ele>75.2</ele><time>2026-04-27T11:10:25.9Z</time></trkpt><trkpt lat="39.67990709042418" lon="8.498468280376272"><ele>76.4</ele><time>2026-04-27T11:10:26.9Z</time></trkpt><trkpt lat="39.67981062703409" lon="8.498448978317908"><ele>77.6</ele><time>2026-04-27T11:10:28.9Z</time></trkpt><trkpt lat="39.679761611242974" lon="8.49836492151572"><ele>78.8</ele><time>2026-04-27T11:10:30.901Z</time></trkpt><trkpt lat="39.67969791044797" lon="8.498241484144371"><ele>80.0</ele><time>2026-04-27T11:10:32.9Z</time></trkpt><trkpt lat="39.67960832532389" lon="8.498171886798376"><ele>80.0</ele><time>2026-04-27T11:10:34.9Z</time></trkpt><trkpt lat="39.67953627688473" lon="8.498159889133166"><ele>80.0</ele><time>2026-04-27T11:10:35.9Z</time></trkpt><trkpt lat="39.67946591200987" lon="8.498178525175451"><ele>80.0</ele><time>2026-04-27T11:10:36.901Z</time></trkpt><trkpt lat="39.67936090989159" lon="8.498253473623082"><ele>80.0</ele><time>2026-04-27T11:10:38.9Z</time></trkpt><trkpt lat="39.67929055055269" lon="8.498336129197147"><ele>80.0</ele><time>2026-04-27T11:10:40.9Z</time></trkpt><trkpt lat="39.67921792209089" lon="8.498354596094817"><ele>80.0</ele><time>2026-04-27T11:10:42.9Z</time></trkpt><trkpt lat="39.67914927613783" lon="8.498303899870912"><ele>81.2</ele><time>2026-04-27T11:10:47.901Z</time></trkpt><trkpt lat="39.67908261979891" lon="8.498190412460245"><ele>82.4</ele><time>2026-04-27T11:10:49.901Z</time></trkpt><trkpt lat="39.67903408379907" lon="8.49806633882327"><ele>83.6</ele><time>2026-04-27T11:10:51.901Z</time></trkpt><trkpt lat="39.678990019078576" lon="8.497999424986695"><ele>84.8</ele><time>2026-04-27T11:10:52.901Z</time></trkpt><trkpt lat="39.6788868142564" lon="8.497908575848404"><ele>86.0</ele><time>2026-04-27T11:10:54.901Z</time></trkpt><trkpt lat="39.67883676781731" lon="8.497852386539053"><ele>87.33333333333334</ele><time>2026-04-27T11:10:55.901Z</time></trkpt><trkpt lat="39.67876717973678" lon="8.497796908366286"><ele>88.66666666666667</ele><time>2026-04-27T11:10:56.901Z</time></trkpt><trkpt lat="39.678686199590835" lon="8.497746596673492"><ele>90.0</ele><time>2026-04-27T11:10:57.901Z</time></trkpt><trkpt lat="39.67862043118031" lon="8.497688767334294"><ele>91.33333333333333</ele><time>2026-04-27T11:10:58.901Z</time></trkpt><trkpt lat="39.67856285030265" lon="8.49764406258883"><ele>92.66666666666666</ele><time>2026-04-27T11:10:59.901Z</time></trkpt><trkpt lat="39.67847030563185" lon="8.497583115332468"><ele>94.0</ele><time>2026-04-27T11:11:01.901Z</time></trkpt><trkpt lat="39.6784007447949" lon="8.497508298073154"><ele>94.16666666666666</ele><time>2026-04-27T11:11:03.901Z</time></trkpt><trkpt lat="39.67835924234499" lon="8.49744641683501"><ele>94.33333333333333</ele><time>2026-04-27T11:11:04.901Z</time></trkpt><trkpt lat="39.67831800415184" lon="8.49737330310595"><ele>94.5</ele><time>2026-04-27T11:11:05.901Z</time></trkpt><trkpt lat="39.67827338551506" lon="8.497307580717056"><ele>94.66666666666667</ele><time>2026-04-27T11:11:06.901Z</time></trkpt><trkpt lat="39.678180980599805" lon="8.497247461167953"><ele>94.83333333333334</ele><time>2026-04-27T11:11:08.901Z</time></trkpt><trkpt lat="39.678118728391304" lon="8.497219845591365"><ele>95.0</ele><time>2026-04-27T11:11:09.901Z</time></trkpt><trkpt lat="39.678040820071125" lon="8.497188790722081"><ele>95.0</ele><time>2026-04-27T11:11:10.901Z</time></trkpt><trkpt lat="39.677969560227915" lon="8.497157601994902"><ele>95.0</ele><time>2026-04-27T11:11:11.901Z</time></trkpt><trkpt lat="39.677906797822175" lon="8.497142603329765"><ele>95.0</ele><time>2026-04-27T11:11:12.901Z</time></trkpt><trkpt lat="39.677799019974685" lon="8.497115201135257"><ele>95.0</ele><time>2026-04-27T11:11:14.901Z</time></trkpt><trkpt lat="39.67771190962503" lon="8.497038598150187"><ele>95.0</ele><time>2026-04-27T11:11:16.901Z</time></trkpt><trkpt lat="39.6776601823303" lon="8.496915380919914"><ele>96.6</ele><time>2026-04-27T11:11:18.901Z</time></trkpt><trkpt lat="39.677607197947765" lon="8.496817556287885"><ele>98.2</ele><time>2026-04-27T11:11:20.901Z</time></trkpt><trkpt lat="39.67753646691043" lon="8.49671622865025"><ele>99.80000000000001</ele><time>2026-04-27T11:11:22.901Z</time></trkpt><trkpt lat="39.67744428512201" lon="8.496691658300879"><ele>101.4</ele><time>2026-04-27T11:11:24.901Z</time></trkpt><trkpt lat="39.67734773942596" lon="8.49663242471486"><ele>103.0</ele><time>2026-04-27T11:11:26.901Z</time></trkpt><trkpt lat="39.6772447781946" lon="8.496577535034616"><ele>103.00000000000001</ele><time>2026-04-27T11:11:28.901Z</time></trkpt><trkpt lat="39.67717576056928" lon="8.496531668049574"><ele>103.0</ele><time>2026-04-27T11:11:29.901Z</time></trkpt><trkpt lat="39.677108371400806" lon="8.496478288345353"><ele>103.0</ele><time>2026-04-27T11:11:30.901Z</time></trkpt><trkpt lat="39.6770343901317" lon="8.496423391629163"><ele>103.0</ele><time>2026-04-27T11:11:31.901Z</time></trkpt><trkpt lat="39.676958725740754" lon="8.496377647376377"><ele>103.00000000000001</ele><time>2026-04-27T11:11:32.901Z</time></trkpt><trkpt lat="39.6768728409828" lon="8.496328822587193"><ele>103.0</ele><time>2026-04-27T11:11:33.901Z</time></trkpt><trkpt lat="39.67678897481175" lon="8.496284243287567"><ele>105.50000000000001</ele><time>2026-04-27T11:11:34.901Z</time></trkpt><trkpt lat="39.67671422069137" lon="8.496232239539575"><ele>108.0</ele><time>2026-04-27T11:11:35.901Z</time></trkpt><trkpt lat="39.67665435862529" lon="8.496188007771075"><ele>110.5</ele><time>2026-04-27T11:11:36.901Z</time></trkpt><trkpt lat="39.67659506751173" lon="8.496148819533646"><ele>113.0</ele><time>2026-04-27T11:11:37.901Z</time></trkpt><trkpt lat="39.676494556402254" lon="8.496076682604647"><ele>115.50000000000001</ele><time>2026-04-27T11:11:39.901Z</time></trkpt><trkpt lat="39.67638812387064" lon="8.496024644471209"><ele>118.0</ele><time>2026-04-27T11:11:41.901Z</time></trkpt><trkpt lat="39.67632445984521" lon="8.495998422803845"><ele>118.0</ele><time>2026-04-27T11:11:42.901Z</time></trkpt><trkpt lat="39.676197060120465" lon="8.495956550033009"><ele>118.00000000000001</ele><time>2026-04-27T11:11:44.901Z</time></trkpt><trkpt lat="39.67611573523607" lon="8.495880739150014"><ele>118.00000000000001</ele><time>2026-04-27T11:11:46.901Z</time></trkpt><trkpt lat="39.67611131091256" lon="8.495782118241468"><ele>118.0</ele><time>2026-04-27T11:11:48.901Z</time></trkpt><trkpt lat="39.67615814615428" lon="8.495679498459518"><ele>118.0</ele><time>2026-04-27T11:11:50.901Z</time></trkpt><trkpt lat="39.67620828864138" lon="8.495538255352463"><ele>118.00000000000001</ele><time>2026-04-27T11:11:52.901Z</time></trkpt><trkpt lat="39.67622768421031" lon="8.495446171592189"><ele>118.0</ele><time>2026-04-27T11:11:53.901Z</time></trkpt><trkpt lat="39.67623660671239" lon="8.495359456276592"><ele>118.0</ele><time>2026-04-27T11:11:54.901Z</time></trkpt><trkpt lat="39.67624171115124" lon="8.495271652308789"><ele>118.0</ele><time>2026-04-27T11:11:55.901Z</time></trkpt><trkpt lat="39.676250596239115" lon="8.49514046713695"><ele>118.00000000000001</ele><time>2026-04-27T11:11:57.901Z</time></trkpt><trkpt lat="39.676315704713666" lon="8.495001872908869"><ele>118.0</ele><time>2026-04-27T11:11:59.901Z</time></trkpt><trkpt lat="39.676313186152576" lon="8.494844140256752"><ele>122.4</ele><time>2026-04-27T11:12:01.901Z</time></trkpt><trkpt lat="39.67627352641213" lon="8.49477575005784"><ele>126.80000000000001</ele><time>2026-04-27T11:12:02.901Z</time></trkpt><trkpt lat="39.67618542826646" lon="8.49469358726935"><ele>131.2</ele><time>2026-04-27T11:12:04.901Z</time></trkpt><trkpt lat="39.67610012259123" lon="8.494717664667686"><ele>135.6</ele><time>2026-04-27T11:12:06.901Z</time></trkpt><trkpt lat="39.676074208000564" lon="8.494867174080033"><ele>140.0</ele><time>2026-04-27T11:12:08.901Z</time></trkpt><trkpt lat="39.676077974368646" lon="8.494961749865446"><ele>140.8</ele><time>2026-04-27T11:12:09.901Z</time></trkpt><trkpt lat="39.67607097195321" lon="8.495073999159462"><ele>141.6</ele><time>2026-04-27T11:12:11.902Z</time></trkpt><trkpt lat="39.676013121103864" lon="8.495124255323054"><ele>142.4</ele><time>2026-04-27T11:12:13.902Z</time></trkpt><trkpt lat="39.675927553305215" lon="8.495154037045243"><ele>143.2</ele><time>2026-04-27T11:12:15.902Z</time></trkpt><trkpt lat="39.675807423892834" lon="8.495185793546446"><ele>144.0</ele><time>2026-04-27T11:12:17.902Z</time></trkpt><trkpt lat="39.67570176683352" lon="8.49521758558335"><ele>144.0</ele><time>2026-04-27T11:12:19.902Z</time></trkpt><trkpt lat="39.675604345498435" lon="8.495248380957612"><ele>144.0</ele><time>2026-04-27T11:12:21.902Z</time></trkpt><trkpt lat="39.67549058086568" lon="8.495263992680508"><ele>144.0</ele><time>2026-04-27T11:12:23.902Z</time></trkpt><trkpt lat="39.67542680561906" lon="8.495278476808236"><ele>144.0</ele><time>2026-04-27T11:12:24.902Z</time></trkpt><trkpt lat="39.67535970406644" lon="8.495303975088158"><ele>144.0</ele><time>2026-04-27T11:12:25.902Z</time></trkpt><trkpt lat="39.675258267828795" lon="8.495334268481205"><ele>148.0</ele><time>2026-04-27T11:12:27.902Z</time></trkpt><trkpt lat="39.67518916232592" lon="8.495436821582159"><ele>152.0</ele><time>2026-04-27T11:12:29.902Z</time></trkpt><trkpt lat="39.67516668840205" lon="8.495522359060029"><ele>156.0</ele><time>2026-04-27T11:12:30.901Z</time></trkpt><trkpt lat="39.67511764824522" lon="8.495576756593367"><ele>160.0</ele><time>2026-04-27T11:12:32.901Z</time></trkpt><trkpt lat="39.67506341409348" lon="8.495499306076102"><ele>164.0</ele><time>2026-04-27T11:12:34.9Z</time></trkpt><trkpt lat="39.67508452102289" lon="8.495397069403653"><ele>168.0</ele><time>2026-04-27T11:12:36.9Z</time></trkpt><trkpt lat="39.675123957164274" lon="8.495326275553573"><ele>168.85714285714286</ele><time>2026-04-27T11:12:37.9Z</time></trkpt><trkpt lat="39.67517012855747" lon="8.495264557661613"><ele>169.71428571428572</ele><time>2026-04-27T11:12:38.9Z</time></trkpt><trkpt lat="39.6752267181506" lon="8.495202503367734"><ele>170.57142857142856</ele><time>2026-04-27T11:12:39.9Z</time></trkpt><trkpt lat="39.67527940287034" lon="8.495146066449777"><ele>171.42857142857144</ele><time>2026-04-27T11:12:40.9Z</time></trkpt><trkpt lat="39.675331277655154" lon="8.495096560962487"><ele>172.28571428571428</ele><time>2026-04-27T11:12:41.9Z</time></trkpt><trkpt lat="39.67539562178042" lon="8.49503958847231"><ele>173.14285714285714</ele><time>2026-04-27T11:12:42.9Z</time></trkpt><trkpt lat="39.6754486819925" lon="8.494976874311241"><ele>174.0</ele><time>2026-04-27T11:12:43.9Z</time></trkpt><trkpt lat="39.67552599659518" lon="8.494863532531514"><ele>171.39999999999998</ele><time>2026-04-27T11:12:45.9Z</time></trkpt><trkpt lat="39.67553040130363" lon="8.494716688265717"><ele>168.8</ele><time>2026-04-27T11:12:47.9Z</time></trkpt><trkpt lat="39.67548786752368" lon="8.494563898104934"><ele>166.2</ele><time>2026-04-27T11:12:49.9Z</time></trkpt><trkpt lat="39.67546972098781" lon="8.494466186621178"><ele>163.60000000000002</ele><time>2026-04-27T11:12:50.9Z</time></trkpt><trkpt lat="39.675449600062365" lon="8.494361313751163"><ele>161.0</ele><time>2026-04-27T11:12:51.9Z</time></trkpt><trkpt lat="39.67543176257161" lon="8.49426635140051"><ele>161.0</ele><time>2026-04-27T11:12:52.9Z</time></trkpt><trkpt lat="39.675410357159755" lon="8.494179459492981"><ele>161.0</ele><time>2026-04-27T11:12:53.9Z</time></trkpt><trkpt lat="39.67540078259119" lon="8.494054899574882"><ele>161.0</ele><time>2026-04-27T11:12:55.9Z</time></trkpt><trkpt lat="39.675416197470966" lon="8.493924128947747"><ele>161.0</ele><time>2026-04-27T11:12:57.9Z</time></trkpt><trkpt lat="39.67545209537728" lon="8.493760635042662"><ele>161.0</ele><time>2026-04-27T11:12:59.9Z</time></trkpt><trkpt lat="39.67550791712231" lon="8.493683946760436"><ele>162.5</ele><time>2026-04-27T11:13:00.9Z</time></trkpt><trkpt lat="39.67557750878616" lon="8.493616181890498"><ele>164.0</ele><time>2026-04-27T11:13:01.9Z</time></trkpt><trkpt lat="39.67564541499946" lon="8.493560604489028"><ele>165.5</ele><time>2026-04-27T11:13:02.9Z</time></trkpt><trkpt lat="39.67569936228435" lon="8.493484946223155"><ele>167.0</ele><time>2026-04-27T11:13:03.9Z</time></trkpt><trkpt lat="39.67576040802406" lon="8.493402560173683"><ele>168.5</ele><time>2026-04-27T11:13:04.9Z</time></trkpt><trkpt lat="39.67582802551616" lon="8.493330638131184"><ele>170.0</ele><time>2026-04-27T11:13:05.9Z</time></trkpt><trkpt lat="39.67590288205864" lon="8.493286837856266"><ele>170.0</ele><time>2026-04-27T11:13:06.9Z</time></trkpt><trkpt lat="39.67597427075677" lon="8.493238714401638"><ele>170.0</ele><time>2026-04-27T11:13:07.9Z</time></trkpt><trkpt lat="39.676043072865305" lon="8.493181129343222"><ele>170.0</ele><time>2026-04-27T11:13:08.9Z</time></trkpt><trkpt lat="39.67611266260895" lon="8.493112854014736"><ele>170.0</ele><time>2026-04-27T11:13:09.9Z</time></trkpt><trkpt lat="39.67617883025579" lon="8.493048312843527"><ele>170.0</ele><time>2026-04-27T11:13:10.9Z</time></trkpt><trkpt lat="39.6762312606426" lon="8.492985180421373"><ele>170.0</ele><time>2026-04-27T11:13:11.9Z</time></trkpt><trkpt lat="39.67627888515294" lon="8.492862584812116"><ele>169.66666666666666</ele><time>2026-04-27T11:13:13.9Z</time></trkpt><trkpt lat="39.67628845944361" lon="8.49277947480979"><ele>169.33333333333331</ele><time>2026-04-27T11:13:14.9Z</time></trkpt><trkpt lat="39.67630227964725" lon="8.492694019285082"><ele>169.0</ele><time>2026-04-27T11:13:16.9Z</time></trkpt><trkpt lat="39.6762703463977" lon="8.492622697985647"><ele>168.66666666666666</ele><time>2026-04-27T11:14:37.901Z</time></trkpt><trkpt lat="39.67619520173673" lon="8.492647784843804"><ele>168.33333333333334</ele><time>2026-04-27T11:14:39.901Z</time></trkpt><trkpt lat="39.67610791913338" lon="8.49263827176357"><ele>168.0</ele><time>2026-04-27T11:14:41.9Z</time></trkpt><trkpt lat="39.676017609312034" lon="8.492583064918584"><ele>168.0</ele><time>2026-04-27T11:14:43.9Z</time></trkpt><trkpt lat="39.67596002472971" lon="8.4925446723149"><ele>168.0</ele><time>2026-04-27T11:14:44.9Z</time></trkpt><trkpt lat="39.67589599994813" lon="8.492508752115906"><ele>168.0</ele><time>2026-04-27T11:14:45.901Z</time></trkpt><trkpt lat="39.67582134269624" lon="8.49247340490834"><ele>168.0</ele><time>2026-04-27T11:14:46.901Z</time></trkpt><trkpt lat="39.67574264720196" lon="8.492428572715747"><ele>168.0</ele><time>2026-04-27T11:14:47.901Z</time></trkpt><trkpt lat="39.6756665974702" lon="8.492387787115842"><ele>168.0</ele><time>2026-04-27T11:14:48.9Z</time></trkpt><trkpt lat="39.6755989085227" lon="8.492352587166927"><ele>168.0</ele><time>2026-04-27T11:14:49.9Z</time></trkpt><trkpt lat="39.67547572292698" lon="8.49229083403535"><ele>168.0</ele><time>2026-04-27T11:14:51.9Z</time></trkpt><trkpt lat="39.6754047859269" lon="8.49231752525744"><ele>168.0</ele><time>2026-04-27T11:14:52.9Z</time></trkpt><trkpt lat="39.67532066814957" lon="8.492324459724346"><ele>168.0</ele><time>2026-04-27T11:14:53.9Z</time></trkpt><trkpt lat="39.67523961330237" lon="8.492323253401379"><ele>168.0</ele><time>2026-04-27T11:14:54.9Z</time></trkpt><trkpt lat="39.67515607700073" lon="8.492302838342434"><ele>168.0</ele><time>2026-04-27T11:14:55.9Z</time></trkpt><trkpt lat="39.67506966491266" lon="8.492265321821671"><ele>168.0</ele><time>2026-04-27T11:14:56.9Z</time></trkpt><trkpt lat="39.674988102403965" lon="8.492230657714673"><ele>168.0</ele><time>2026-04-27T11:14:57.9Z</time></trkpt><trkpt lat="39.674909365971416" lon="8.49219191899816"><ele>168.0</ele><time>2026-04-27T11:14:58.9Z</time></trkpt><trkpt lat="39.674794869278124" lon="8.49211777309738"><ele>168.0</ele><time>2026-04-27T11:15:00.9Z</time></trkpt><trkpt lat="39.67474168631416" lon="8.49205626263514"><ele>168.0</ele><time>2026-04-27T11:15:01.9Z</time></trkpt><trkpt lat="39.674679243980954" lon="8.491979249847168"><ele>168.0</ele><time>2026-04-27T11:15:02.9Z</time></trkpt><trkpt lat="39.6746159080238" lon="8.491922347618397"><ele>168.0</ele><time>2026-04-27T11:15:03.9Z</time></trkpt><trkpt lat="39.6745418606451" lon="8.491887537143466"><ele>168.0</ele><time>2026-04-27T11:15:04.9Z</time></trkpt><trkpt lat="39.67445204129318" lon="8.491860805095769"><ele>168.0</ele><time>2026-04-27T11:15:05.9Z</time></trkpt><trkpt lat="39.674366026928155" lon="8.491849423990196"><ele>168.0</ele><time>2026-04-27T11:15:06.9Z</time></trkpt><trkpt lat="39.674283902995306" lon="8.491823221673089"><ele>168.0</ele><time>2026-04-27T11:15:07.9Z</time></trkpt><trkpt lat="39.67420357414272" lon="8.491780383200801"><ele>168.0</ele><time>2026-04-27T11:15:08.9Z</time></trkpt><trkpt lat="39.67412823438492" lon="8.491741829870532"><ele>168.0</ele><time>2026-04-27T11:15:09.9Z</time></trkpt><trkpt lat="39.674059141236754" lon="8.491698285328749"><ele>168.0</ele><time>2026-04-27T11:15:10.9Z</time></trkpt><trkpt lat="39.673984913253435" lon="8.491650056124204"><ele>168.0</ele><time>2026-04-27T11:15:11.9Z</time></trkpt><trkpt lat="39.6738919719311" lon="8.491611329743064"><ele>168.0</ele><time>2026-04-27T11:15:13.9Z</time></trkpt><trkpt lat="39.67383015472705" lon="8.491634704030922"><ele>168.0</ele><time>2026-04-27T11:15:15.901Z</time></trkpt><trkpt lat="39.67376696661685" lon="8.491702342834461"><ele>168.0</ele><time>2026-04-27T11:15:17.901Z</time></trkpt><trkpt lat="39.67372728140993" lon="8.491778591166375"><ele>168.0</ele><time>2026-04-27T11:15:19.901Z</time></trkpt><trkpt lat="39.673663090556424" lon="8.491898364596956"><ele>168.0</ele><time>2026-04-27T11:15:21.901Z</time></trkpt><trkpt lat="39.67358358550348" lon="8.492014810909865"><ele>168.0</ele><time>2026-04-27T11:15:23.901Z</time></trkpt><trkpt lat="39.67351303750508" lon="8.492146759308902"><ele>169.71428571428572</ele><time>2026-04-27T11:15:25.901Z</time></trkpt><trkpt lat="39.6734818445236" lon="8.49222053010696"><ele>171.42857142857144</ele><time>2026-04-27T11:15:26.901Z</time></trkpt><trkpt lat="39.673440778873356" lon="8.492302200069835"><ele>173.14285714285714</ele><time>2026-04-27T11:15:27.901Z</time></trkpt><trkpt lat="39.6734060671769" lon="8.492372273873356"><ele>174.85714285714286</ele><time>2026-04-27T11:15:28.901Z</time></trkpt><trkpt lat="39.673367987998795" lon="8.492441756408507"><ele>176.57142857142858</ele><time>2026-04-27T11:15:29.901Z</time></trkpt><trkpt lat="39.673317891734065" lon="8.492537160259266"><ele>178.28571428571428</ele><time>2026-04-27T11:15:30.901Z</time></trkpt><trkpt lat="39.67328242031525" lon="8.492616213954854"><ele>180.0</ele><time>2026-04-27T11:15:31.901Z</time></trkpt><trkpt lat="39.67322221081759" lon="8.492695433990928"><ele>180.0</ele><time>2026-04-27T11:15:32.901Z</time></trkpt><trkpt lat="39.67314823381392" lon="8.492766873927772"><ele>180.0</ele><time>2026-04-27T11:15:33.901Z</time></trkpt><trkpt lat="39.67307004699719" lon="8.492839247939378"><ele>180.0</ele><time>2026-04-27T11:15:34.901Z</time></trkpt><trkpt lat="39.673000574676706" lon="8.492893763630974"><ele>180.0</ele><time>2026-04-27T11:15:35.901Z</time></trkpt><trkpt lat="39.672927089811225" lon="8.49294627886611"><ele>180.0</ele><time>2026-04-27T11:15:36.901Z</time></trkpt><trkpt lat="39.67282790287868" lon="8.493013738619725"><ele>180.83333333333334</ele><time>2026-04-27T11:15:38.901Z</time></trkpt><trkpt lat="39.67274709513205" lon="8.493151622540333"><ele>181.66666666666666</ele><time>2026-04-27T11:15:40.901Z</time></trkpt><trkpt lat="39.67270298367253" lon="8.49322302496448"><ele>182.5</ele><time>2026-04-27T11:15:41.901Z</time></trkpt><trkpt lat="39.67264793793494" lon="8.493300403276018"><ele>183.33333333333331</ele><time>2026-04-27T11:15:42.901Z</time></trkpt><trkpt lat="39.67258744989952" lon="8.493355861347716"><ele>184.16666666666666</ele><time>2026-04-27T11:15:43.901Z</time></trkpt><trkpt lat="39.67253025737728" lon="8.493410259955727"><ele>185.0</ele><time>2026-04-27T11:15:44.901Z</time></trkpt><trkpt lat="39.67248666971709" lon="8.493470928568646"><ele>185.0</ele><time>2026-04-27T11:15:45.901Z</time></trkpt><trkpt lat="39.67244409354207" lon="8.49355007974844"><ele>185.0</ele><time>2026-04-27T11:15:46.901Z</time></trkpt><trkpt lat="39.672404942501494" lon="8.493639997477437"><ele>185.0</ele><time>2026-04-27T11:15:47.901Z</time></trkpt><trkpt lat="39.672366281234844" lon="8.493746823331634"><ele>185.0</ele><time>2026-04-27T11:15:48.901Z</time></trkpt><trkpt lat="39.67233011509433" lon="8.493850606084688"><ele>185.0</ele><time>2026-04-27T11:15:49.901Z</time></trkpt><trkpt lat="39.672294182943084" lon="8.493957037478078"><ele>185.0</ele><time>2026-04-27T11:15:50.901Z</time></trkpt><trkpt lat="39.67225782693828" lon="8.49407592150962"><ele>185.4</ele><time>2026-04-27T11:15:51.901Z</time></trkpt><trkpt lat="39.672221016393195" lon="8.494203904975103"><ele>185.8</ele><time>2026-04-27T11:15:52.901Z</time></trkpt><trkpt lat="39.67218278881863" lon="8.494326113085638"><ele>186.2</ele><time>2026-04-27T11:15:53.901Z</time></trkpt><trkpt lat="39.67213720388788" lon="8.494443831275088"><ele>186.6</ele><time>2026-04-27T11:15:54.901Z</time></trkpt><trkpt lat="39.6720821657364" lon="8.49455437732668"><ele>187.0</ele><time>2026-04-27T11:15:55.901Z</time></trkpt><trkpt lat="39.67202499690961" lon="8.494656798419026"><ele>186.6</ele><time>2026-04-27T11:15:56.901Z</time></trkpt><trkpt lat="39.671969818085074" lon="8.494743816421622"><ele>186.2</ele><time>2026-04-27T11:15:57.901Z</time></trkpt><trkpt lat="39.67189744298028" lon="8.494831449496171"><ele>185.8</ele><time>2026-04-27T11:15:58.901Z</time></trkpt><trkpt lat="39.67182291821392" lon="8.494901945337409"><ele>185.4</ele><time>2026-04-27T11:15:59.901Z</time></trkpt><trkpt lat="39.67175328902178" lon="8.49497529773935"><ele>185.0</ele><time>2026-04-27T11:16:00.901Z</time></trkpt><trkpt lat="39.6716845927917" lon="8.49505219803666"><ele>185.0</ele><time>2026-04-27T11:16:01.901Z</time></trkpt><trkpt lat="39.671596482666814" lon="8.495089287621612"><ele>185.0</ele><time>2026-04-27T11:16:02.901Z</time></trkpt><trkpt lat="39.67151417489239" lon="8.495135652582974"><ele>185.0</ele><time>2026-04-27T11:16:03.901Z</time></trkpt><trkpt lat="39.67142676747664" lon="8.495184653719253"><ele>185.0</ele><time>2026-04-27T11:16:04.901Z</time></trkpt><trkpt lat="39.671341378893665" lon="8.495253561349973"><ele>185.0</ele><time>2026-04-27T11:16:05.901Z</time></trkpt><trkpt lat="39.67124896334548" lon="8.495295526010242"><ele>185.0</ele><time>2026-04-27T11:16:06.901Z</time></trkpt><trkpt lat="39.671163454242375" lon="8.495331106356227"><ele>185.0</ele><time>2026-04-27T11:16:07.901Z</time></trkpt><trkpt lat="39.67108148683219" lon="8.495357618839797"><ele>185.0</ele><time>2026-04-27T11:16:08.901Z</time></trkpt><trkpt lat="39.6709862520386" lon="8.495367659461056"><ele>185.0</ele><time>2026-04-27T11:16:09.901Z</time></trkpt><trkpt lat="39.670899229707366" lon="8.495378090283513"><ele>185.0</ele><time>2026-04-27T11:16:10.901Z</time></trkpt><trkpt lat="39.67080485865586" lon="8.495390295184144"><ele>184.66666666666666</ele><time>2026-04-27T11:16:11.901Z</time></trkpt><trkpt lat="39.67071859374301" lon="8.495404113000193"><ele>184.33333333333331</ele><time>2026-04-27T11:16:12.901Z</time></trkpt><trkpt lat="39.670639121208765" lon="8.495417709620625"><ele>184.0</ele><time>2026-04-27T11:16:13.901Z</time></trkpt><trkpt lat="39.67055940687319" lon="8.49543565826915"><ele>183.66666666666666</ele><time>2026-04-27T11:16:14.901Z</time></trkpt><trkpt lat="39.67047772122036" lon="8.495399080466967"><ele>183.33333333333334</ele><time>2026-04-27T11:16:15.901Z</time></trkpt><trkpt lat="39.67039625864243" lon="8.49534352184831"><ele>183.0</ele><time>2026-04-27T11:16:16.901Z</time></trkpt><trkpt lat="39.670322291913514" lon="8.495276221652924"><ele>181.0</ele><time>2026-04-27T11:16:17.901Z</time></trkpt><trkpt lat="39.670251491953714" lon="8.49520830875598"><ele>179.0</ele><time>2026-04-27T11:16:18.901Z</time></trkpt><trkpt lat="39.670176442602795" lon="8.495150563186204"><ele>177.0</ele><time>2026-04-27T11:16:19.901Z</time></trkpt><trkpt lat="39.67009438487143" lon="8.495086603592537"><ele>175.0</ele><time>2026-04-27T11:16:20.901Z</time></trkpt><trkpt lat="39.67000846483373" lon="8.495012967921669"><ele>173.0</ele><time>2026-04-27T11:16:21.901Z</time></trkpt><trkpt lat="39.6699267638809" lon="8.494920883676757"><ele>173.0</ele><time>2026-04-27T11:16:22.901Z</time></trkpt><trkpt lat="39.669854138447164" lon="8.494817706349323"><ele>173.0</ele><time>2026-04-27T11:16:23.901Z</time></trkpt><trkpt lat="39.66976694547855" lon="8.494732005738545"><ele>173.0</ele><time>2026-04-27T11:16:24.901Z</time></trkpt><trkpt lat="39.66968052163798" lon="8.494661150752096"><ele>173.0</ele><time>2026-04-27T11:16:25.901Z</time></trkpt><trkpt lat="39.66959552947973" lon="8.494597790582826"><ele>173.0</ele><time>2026-04-27T11:16:26.901Z</time></trkpt><trkpt lat="39.66950399221909" lon="8.494546550363554"><ele>172.16666666666666</ele><time>2026-04-27T11:16:27.901Z</time></trkpt><trkpt lat="39.66943311377119" lon="8.494465958811338"><ele>171.33333333333331</ele><time>2026-04-27T11:16:28.901Z</time></trkpt><trkpt lat="39.66934302100113" lon="8.494436024960818"><ele>170.5</ele><time>2026-04-27T11:16:29.901Z</time></trkpt><trkpt lat="39.66925784985603" lon="8.49438893118797"><ele>169.66666666666666</ele><time>2026-04-27T11:16:30.901Z</time></trkpt><trkpt lat="39.6691953766879" lon="8.49435497587411"><ele>168.83333333333334</ele><time>2026-04-27T11:16:31.901Z</time></trkpt><trkpt lat="39.66910003785255" lon="8.494310674615964"><ele>168.0</ele><time>2026-04-27T11:16:32.901Z</time></trkpt><trkpt lat="39.66899869917966" lon="8.494270086076895"><ele>168.0</ele><time>2026-04-27T11:16:33.901Z</time></trkpt><trkpt lat="39.66889465189566" lon="8.494230444582996"><ele>168.0</ele><time>2026-04-27T11:16:34.901Z</time></trkpt><trkpt lat="39.66879828679089" lon="8.4941937298991"><ele>168.0</ele><time>2026-04-27T11:16:35.901Z</time></trkpt><trkpt lat="39.668673717098386" lon="8.49417599148299"><ele>168.0</ele><time>2026-04-27T11:16:37.901Z</time></trkpt><trkpt lat="39.668585864194476" lon="8.494157679295405"><ele>168.0</ele><time>2026-04-27T11:16:38.901Z</time></trkpt><trkpt lat="39.66849410322107" lon="8.494135173826884"><ele>168.25</ele><time>2026-04-27T11:16:39.901Z</time></trkpt><trkpt lat="39.66840467350155" lon="8.494108695209265"><ele>168.5</ele><time>2026-04-27T11:16:40.901Z</time></trkpt><trkpt lat="39.668237366091034" lon="8.493946218530061"><ele>168.75</ele><time>2026-04-27T11:16:41.901Z</time></trkpt><trkpt lat="39.6681750270477" lon="8.493874233889953"><ele>169.0</ele><time>2026-04-27T11:16:42.901Z</time></trkpt><trkpt lat="39.668110979467215" lon="8.493751109354001"><ele>167.0</ele><time>2026-04-27T11:16:43.901Z</time></trkpt><trkpt lat="39.66806192537144" lon="8.493679657288629"><ele>165.0</ele><time>2026-04-27T11:16:44.901Z</time></trkpt><trkpt lat="39.668025157223134" lon="8.493608963428269"><ele>163.0</ele><time>2026-04-27T11:16:45.901Z</time></trkpt><trkpt lat="39.66826491300574" lon="8.493202677844236"><ele>163.0</ele><time>2026-04-27T11:16:46.901Z</time></trkpt><trkpt lat="39.668244678125134" lon="8.493100978765884"><ele>163.0</ele><time>2026-04-27T11:16:47.901Z</time></trkpt><trkpt lat="39.6681817034205" lon="8.493024184608602"><ele>163.0</ele><time>2026-04-27T11:16:49.901Z</time></trkpt><trkpt lat="39.66812071528098" lon="8.493058943883844"><ele>163.0</ele><time>2026-04-27T11:16:51.901Z</time></trkpt><trkpt lat="39.66809075745241" lon="8.493143771780552"><ele>163.0</ele><time>2026-04-27T11:16:53.901Z</time></trkpt><trkpt lat="39.668061262710395" lon="8.49324677553254"><ele>163.0</ele><time>2026-04-27T11:16:54.901Z</time></trkpt><trkpt lat="39.668021097177764" lon="8.493386777000921"><ele>163.0</ele><time>2026-04-27T11:16:56.901Z</time></trkpt><trkpt lat="39.667991012278705" lon="8.493485896670272"><ele>163.0</ele><time>2026-04-27T11:16:57.901Z</time></trkpt><trkpt lat="39.66794823207035" lon="8.493576366824128"><ele>163.0</ele><time>2026-04-27T11:16:58.901Z</time></trkpt><trkpt lat="39.6678977649877" lon="8.493644624068272"><ele>163.0</ele><time>2026-04-27T11:16:59.901Z</time></trkpt><trkpt lat="39.66785459162541" lon="8.4937221875622"><ele>163.0</ele><time>2026-04-27T11:17:00.901Z</time></trkpt><trkpt lat="39.66782350169367" lon="8.493808632279187"><ele>163.0</ele><time>2026-04-27T11:17:01.901Z</time></trkpt><trkpt lat="39.66781115852356" lon="8.493917382630263"><ele>164.0</ele><time>2026-04-27T11:17:02.901Z</time></trkpt><trkpt lat="39.66781204710341" lon="8.494039610055284"><ele>165.0</ele><time>2026-04-27T11:17:03.901Z</time></trkpt><trkpt lat="39.66780828971569" lon="8.494157867044562"><ele>166.0</ele><time>2026-04-27T11:17:04.901Z</time></trkpt><trkpt lat="39.66777861338262" lon="8.494248821723161"><ele>167.0</ele><time>2026-04-27T11:17:05.901Z</time></trkpt><trkpt lat="39.667733437221415" lon="8.494324157026883"><ele>168.0</ele><time>2026-04-27T11:17:06.901Z</time></trkpt><trkpt lat="39.6676794238968" lon="8.494412095474171"><ele>169.0</ele><time>2026-04-27T11:17:07.901Z</time></trkpt><trkpt lat="39.6676299807339" lon="8.494490583958408"><ele>165.2</ele><time>2026-04-27T11:17:08.901Z</time></trkpt><trkpt lat="39.66759898805327" lon="8.49456794785274"><ele>161.39999999999998</ele><time>2026-04-27T11:17:09.901Z</time></trkpt><trkpt lat="39.6675664102215" lon="8.49473110745398"><ele>157.6</ele><time>2026-04-27T11:17:11.901Z</time></trkpt><trkpt lat="39.66753863804514" lon="8.494887371234274"><ele>153.8</ele><time>2026-04-27T11:17:13.901Z</time></trkpt><trkpt lat="39.66751677707244" lon="8.495026253788796"><ele>150.0</ele><time>2026-04-27T11:17:15.901Z</time></trkpt><trkpt lat="39.66755571063109" lon="8.495152189214023"><ele>150.16666666666666</ele><time>2026-04-27T11:17:17.901Z</time></trkpt><trkpt lat="39.66760264029308" lon="8.49521128535765"><ele>150.33333333333334</ele><time>2026-04-27T11:17:18.901Z</time></trkpt><trkpt lat="39.66766990487468" lon="8.495260682735477"><ele>150.5</ele><time>2026-04-27T11:17:19.901Z</time></trkpt><trkpt lat="39.667744571834184" lon="8.495308305855481"><ele>150.66666666666669</ele><time>2026-04-27T11:17:20.901Z</time></trkpt><trkpt lat="39.667808999332465" lon="8.495351775378854"><ele>150.83333333333334</ele><time>2026-04-27T11:17:21.901Z</time></trkpt><trkpt lat="39.667883216470386" lon="8.495399835324827"><ele>151.0</ele><time>2026-04-27T11:17:22.901Z</time></trkpt><trkpt lat="39.66794735174148" lon="8.49544709334902"><ele>151.0</ele><time>2026-04-27T11:17:23.901Z</time></trkpt><trkpt lat="39.668043610735744" lon="8.495522091501911"><ele>151.0</ele><time>2026-04-27T11:17:25.901Z</time></trkpt><trkpt lat="39.6680345628776" lon="8.495622325211281"><ele>151.0</ele><time>2026-04-27T11:17:27.901Z</time></trkpt><trkpt lat="39.66794703312123" lon="8.495645474040384"><ele>151.0</ele><time>2026-04-27T11:17:29.901Z</time></trkpt><trkpt lat="39.6678878300093" lon="8.49561401198855"><ele>151.0</ele><time>2026-04-27T11:17:30.901Z</time></trkpt><trkpt lat="39.66782348640563" lon="8.49556166507746"><ele>151.0</ele><time>2026-04-27T11:17:31.901Z</time></trkpt><trkpt lat="39.667772848771165" lon="8.49551066465429"><ele>150.5</ele><time>2026-04-27T11:17:32.901Z</time></trkpt><trkpt lat="39.66769946770601" lon="8.495468359717556"><ele>150.0</ele><time>2026-04-27T11:17:33.901Z</time></trkpt><trkpt lat="39.66761929099521" lon="8.495437844697038"><ele>149.5</ele><time>2026-04-27T11:17:34.901Z</time></trkpt><trkpt lat="39.66753597652386" lon="8.495415348177596"><ele>149.0</ele><time>2026-04-27T11:17:35.901Z</time></trkpt><trkpt lat="39.6674657495356" lon="8.49541095352057"><ele>148.5</ele><time>2026-04-27T11:17:36.901Z</time></trkpt><trkpt lat="39.66735014262454" lon="8.495384016781657"><ele>148.0</ele><time>2026-04-27T11:17:38.901Z</time></trkpt><trkpt lat="39.6672644795662" lon="8.495264628276622"><ele>148.0</ele><time>2026-04-27T11:17:40.901Z</time></trkpt><trkpt lat="39.667237027724155" lon="8.495089260158055"><ele>148.0</ele><time>2026-04-27T11:17:42.901Z</time></trkpt><trkpt lat="39.66722071943721" lon="8.494998632614674"><ele>148.0</ele><time>2026-04-27T11:17:43.901Z</time></trkpt><trkpt lat="39.66719935412743" lon="8.494888128518452"><ele>148.0</ele><time>2026-04-27T11:17:44.901Z</time></trkpt><trkpt lat="39.66718066776356" lon="8.49477236989081"><ele>148.0</ele><time>2026-04-27T11:17:45.901Z</time></trkpt><trkpt lat="39.6671615483961" lon="8.494648002481483"><ele>148.4</ele><time>2026-04-27T11:17:46.901Z</time></trkpt><trkpt lat="39.667135700494654" lon="8.494524353936677"><ele>148.8</ele><time>2026-04-27T11:17:47.901Z</time></trkpt><trkpt lat="39.6671081724565" lon="8.494390773394596"><ele>149.2</ele><time>2026-04-27T11:17:48.901Z</time></trkpt><trkpt lat="39.66707812624793" lon="8.494250274647738"><ele>149.6</ele><time>2026-04-27T11:17:49.901Z</time></trkpt><trkpt lat="39.66704457117869" lon="8.49411602728364"><ele>150.0</ele><time>2026-04-27T11:17:50.901Z</time></trkpt><trkpt lat="39.66700319441683" lon="8.493990738577468"><ele>150.0</ele><time>2026-04-27T11:17:51.901Z</time></trkpt><trkpt lat="39.66695035345659" lon="8.49387209652178"><ele>150.0</ele><time>2026-04-27T11:17:52.901Z</time></trkpt><trkpt lat="39.666903623380804" lon="8.493776419702629"><ele>150.0</ele><time>2026-04-27T11:17:53.901Z</time></trkpt><trkpt lat="39.666875885241005" lon="8.493661172523526"><ele>150.0</ele><time>2026-04-27T11:17:54.901Z</time></trkpt><trkpt lat="39.66685989422542" lon="8.493521099006593"><ele>150.0</ele><time>2026-04-27T11:17:55.902Z</time></trkpt><trkpt lat="39.66685571387338" lon="8.493379069965567"><ele>147.8</ele><time>2026-04-27T11:17:56.902Z</time></trkpt><trkpt lat="39.66685082761607" lon="8.49324496059435"><ele>145.6</ele><time>2026-04-27T11:17:57.902Z</time></trkpt><trkpt lat="39.666839821645965" lon="8.493124844988975"><ele>143.4</ele><time>2026-04-27T11:17:58.902Z</time></trkpt><trkpt lat="39.66682275152685" lon="8.49301608285472"><ele>141.2</ele><time>2026-04-27T11:17:59.902Z</time></trkpt><trkpt lat="39.6667851245809" lon="8.492914394344334"><ele>139.0</ele><time>2026-04-27T11:18:00.902Z</time></trkpt><trkpt lat="39.66673005705577" lon="8.492835271867754"><ele>138.0</ele><time>2026-04-27T11:18:01.902Z</time></trkpt><trkpt lat="39.66666754563382" lon="8.492753107133602"><ele>137.0</ele><time>2026-04-27T11:18:02.902Z</time></trkpt><trkpt lat="39.666593821020726" lon="8.49264745682143"><ele>136.0</ele><time>2026-04-27T11:18:03.902Z</time></trkpt><trkpt lat="39.66652251121706" lon="8.492541213033547"><ele>135.0</ele><time>2026-04-27T11:18:04.902Z</time></trkpt><trkpt lat="39.66646517737819" lon="8.492448614233249"><ele>134.0</ele><time>2026-04-27T11:18:05.902Z</time></trkpt><trkpt lat="39.66640469918252" lon="8.49234747380048"><ele>134.0</ele><time>2026-04-27T11:18:06.902Z</time></trkpt><trkpt lat="39.666368507108594" lon="8.492222854496994"><ele>134.0</ele><time>2026-04-27T11:18:07.902Z</time></trkpt><trkpt lat="39.666328181413164" lon="8.492107666872274"><ele>134.0</ele><time>2026-04-27T11:18:08.902Z</time></trkpt><trkpt lat="39.666275723463635" lon="8.491998122696925"><ele>134.0</ele><time>2026-04-27T11:18:09.902Z</time></trkpt><trkpt lat="39.66622868204547" lon="8.491869890645205"><ele>134.0</ele><time>2026-04-27T11:18:10.902Z</time></trkpt><trkpt lat="39.66619834372337" lon="8.491731985828434"><ele>134.0</ele><time>2026-04-27T11:18:11.902Z</time></trkpt><trkpt lat="39.666166379334754" lon="8.49158415370204"><ele>134.0</ele><time>2026-04-27T11:18:12.902Z</time></trkpt><trkpt lat="39.66611881833275" lon="8.491464023747284"><ele>134.0</ele><time>2026-04-27T11:18:13.902Z</time></trkpt><trkpt lat="39.66607073944158" lon="8.49136321979013"><ele>134.0</ele><time>2026-04-27T11:18:14.902Z</time></trkpt><trkpt lat="39.66601659709873" lon="8.49125316211024"><ele>134.0</ele><time>2026-04-27T11:18:15.902Z</time></trkpt><trkpt lat="39.66596834387915" lon="8.491160422677204"><ele>135.0</ele><time>2026-04-27T11:18:16.902Z</time></trkpt><trkpt lat="39.66590240001243" lon="8.491064719690982"><ele>136.0</ele><time>2026-04-27T11:18:17.902Z</time></trkpt><trkpt lat="39.665833961381686" lon="8.490974958364896"><ele>137.0</ele><time>2026-04-27T11:18:18.902Z</time></trkpt><trkpt lat="39.66576551363986" lon="8.49088499738613"><ele>138.0</ele><time>2026-04-27T11:18:19.902Z</time></trkpt><trkpt lat="39.665700900401475" lon="8.490787438487857"><ele>139.0</ele><time>2026-04-27T11:18:20.902Z</time></trkpt><trkpt lat="39.66565728000897" lon="8.490689920654512"><ele>139.0</ele><time>2026-04-27T11:18:21.902Z</time></trkpt><trkpt lat="39.66564378042262" lon="8.490575497653388"><ele>139.0</ele><time>2026-04-27T11:18:22.902Z</time></trkpt><trkpt lat="39.665645979265534" lon="8.490476432149867"><ele>139.0</ele><time>2026-04-27T11:18:23.902Z</time></trkpt><trkpt lat="39.665700688165956" lon="8.490401099819179"><ele>139.0</ele><time>2026-04-27T11:18:24.902Z</time></trkpt><trkpt lat="39.66571879639117" lon="8.490294478806472"><ele>139.0</ele><time>2026-04-27T11:18:25.902Z</time></trkpt><trkpt lat="39.665741604996434" lon="8.490205431790049"><ele>139.0</ele><time>2026-04-27T11:18:26.902Z</time></trkpt><trkpt lat="39.66575556683081" lon="8.490103962869023"><ele>139.4</ele><time>2026-04-27T11:18:27.902Z</time></trkpt><trkpt lat="39.66576235902055" lon="8.489998099385394"><ele>139.8</ele><time>2026-04-27T11:18:28.902Z</time></trkpt><trkpt lat="39.665752679956235" lon="8.489911595682004"><ele>140.2</ele><time>2026-04-27T11:18:29.902Z</time></trkpt><trkpt lat="39.66568750903051" lon="8.489794229864364"><ele>140.6</ele><time>2026-04-27T11:18:31.902Z</time></trkpt><trkpt lat="39.66555581621089" lon="8.489715341382862"><ele>141.0</ele><time>2026-04-27T11:18:33.902Z</time></trkpt><trkpt lat="39.665493884793136" lon="8.489611683350153"><ele>141.6</ele><time>2026-04-27T11:18:35.902Z</time></trkpt><trkpt lat="39.665454680487485" lon="8.48947584168013"><ele>142.2</ele><time>2026-04-27T11:18:37.902Z</time></trkpt><trkpt lat="39.66540043191657" lon="8.489371733463045"><ele>142.8</ele><time>2026-04-27T11:18:39.902Z</time></trkpt><trkpt lat="39.66536158481521" lon="8.489276154484713"><ele>143.4</ele><time>2026-04-27T11:18:41.902Z</time></trkpt><trkpt lat="39.665336302318046" lon="8.48911764545927"><ele>144.0</ele><time>2026-04-27T11:18:43.902Z</time></trkpt><trkpt lat="39.66531043120502" lon="8.48901152151562"><ele>144.0</ele><time>2026-04-27T11:18:44.902Z</time></trkpt><trkpt lat="39.66532227958833" lon="8.488890712026743"><ele>144.0</ele><time>2026-04-27T11:18:45.902Z</time></trkpt><trkpt lat="39.665306400368586" lon="8.488774608529463"><ele>144.0</ele><time>2026-04-27T11:18:46.902Z</time></trkpt><trkpt lat="39.66531715616245" lon="8.48865430298194"><ele>144.0</ele><time>2026-04-27T11:18:47.902Z</time></trkpt><trkpt lat="39.66533918714581" lon="8.488536454939144"><ele>144.0</ele><time>2026-04-27T11:18:48.901Z</time></trkpt><trkpt lat="39.66537659349062" lon="8.4884363797503"><ele>142.6</ele><time>2026-04-27T11:18:49.901Z</time></trkpt><trkpt lat="39.6654476276366" lon="8.488354533482132"><ele>141.2</ele><time>2026-04-27T11:18:50.901Z</time></trkpt><trkpt lat="39.665495792719696" lon="8.488238591840414"><ele>139.79999999999998</ele><time>2026-04-27T11:18:51.901Z</time></trkpt><trkpt lat="39.66554512439188" lon="8.488141301800406"><ele>138.4</ele><time>2026-04-27T11:18:52.901Z</time></trkpt><trkpt lat="39.6655941357477" lon="8.488035876853862"><ele>137.0</ele><time>2026-04-27T11:18:53.901Z</time></trkpt><trkpt lat="39.66563823091197" lon="8.487945766169208"><ele>135.2</ele><time>2026-04-27T11:18:54.901Z</time></trkpt><trkpt lat="39.66571065840084" lon="8.487835985351696"><ele>133.39999999999998</ele><time>2026-04-27T11:18:56.901Z</time></trkpt><trkpt lat="39.66575218316487" lon="8.487755835235257"><ele>131.60000000000002</ele><time>2026-04-27T11:18:58.901Z</time></trkpt><trkpt lat="39.665747149026494" lon="8.48765578349858"><ele>129.8</ele><time>2026-04-27T11:19:00.901Z</time></trkpt><trkpt lat="39.66572992208665" lon="8.487512416415123"><ele>128.0</ele><time>2026-04-27T11:19:02.901Z</time></trkpt><trkpt lat="39.665704905279306" lon="8.487370334047286"><ele>127.99999999999999</ele><time>2026-04-27T11:19:04.901Z</time></trkpt><trkpt lat="39.6657001869925" lon="8.487287289320617"><ele>128.0</ele><time>2026-04-27T11:19:05.901Z</time></trkpt><trkpt lat="39.66569165276407" lon="8.487137378334758"><ele>128.0</ele><time>2026-04-27T11:19:07.901Z</time></trkpt><trkpt lat="39.66568966056245" lon="8.487054269685785"><ele>128.0</ele><time>2026-04-27T11:19:08.901Z</time></trkpt><trkpt lat="39.66569110014048" lon="8.486891819387605"><ele>127.99999999999999</ele><time>2026-04-27T11:19:10.902Z</time></trkpt><trkpt lat="39.665692151451125" lon="8.486800020518041"><ele>128.0</ele><time>2026-04-27T11:19:11.902Z</time></trkpt><trkpt lat="39.66569821373144" lon="8.486705563699484"><ele>126.33333333333333</ele><time>2026-04-27T11:19:12.902Z</time></trkpt><trkpt lat="39.66571336841255" lon="8.486602791186966"><ele>124.66666666666666</ele><time>2026-04-27T11:19:13.902Z</time></trkpt><trkpt lat="39.665735084909336" lon="8.486497657016015"><ele>123.0</ele><time>2026-04-27T11:19:14.902Z</time></trkpt><trkpt lat="39.66578730455116" lon="8.48641106423248"><ele>121.33333333333334</ele><time>2026-04-27T11:19:15.902Z</time></trkpt><trkpt lat="39.66583993010484" lon="8.486318672796008"><ele>119.66666666666667</ele><time>2026-04-27T11:19:16.902Z</time></trkpt><trkpt lat="39.665893005180045" lon="8.486227207279379"><ele>118.0</ele><time>2026-04-27T11:19:17.902Z</time></trkpt><trkpt lat="39.665961539834086" lon="8.486151426668796"><ele>117.83333333333334</ele><time>2026-04-27T11:19:18.902Z</time></trkpt><trkpt lat="39.66601833861742" lon="8.486069907589519"><ele>117.66666666666667</ele><time>2026-04-27T11:19:19.902Z</time></trkpt><trkpt lat="39.66608240363966" lon="8.485985534937308"><ele>117.5</ele><time>2026-04-27T11:19:20.902Z</time></trkpt><trkpt lat="39.66610563217483" lon="8.485887665601938"><ele>117.33333333333334</ele><time>2026-04-27T11:19:21.902Z</time></trkpt><trkpt lat="39.66611980655866" lon="8.485775273776806"><ele>117.16666666666667</ele><time>2026-04-27T11:19:22.902Z</time></trkpt><trkpt lat="39.66612475301669" lon="8.485646095707951"><ele>117.0</ele><time>2026-04-27T11:19:23.902Z</time></trkpt><trkpt lat="39.666091012259685" lon="8.485495672461278"><ele>118.39999999999999</ele><time>2026-04-27T11:19:24.902Z</time></trkpt><trkpt lat="39.66608923640454" lon="8.48535233358738"><ele>119.79999999999998</ele><time>2026-04-27T11:19:25.902Z</time></trkpt><trkpt lat="39.66607806004705" lon="8.485168351738531"><ele>121.2</ele><time>2026-04-27T11:19:27.902Z</time></trkpt><trkpt lat="39.666063232877384" lon="8.485048924716732"><ele>122.6</ele><time>2026-04-27T11:19:28.902Z</time></trkpt><trkpt lat="39.666073646505986" lon="8.484929591772124"><ele>124.0</ele><time>2026-04-27T11:19:29.902Z</time></trkpt><trkpt lat="39.666072593454196" lon="8.484805764997157"><ele>124.0</ele><time>2026-04-27T11:19:30.902Z</time></trkpt><trkpt lat="39.66607004578595" lon="8.48467848979632"><ele>124.0</ele><time>2026-04-27T11:19:31.902Z</time></trkpt><trkpt lat="39.66605975573845" lon="8.4845508312824"><ele>124.0</ele><time>2026-04-27T11:19:32.902Z</time></trkpt><trkpt lat="39.66603115118497" lon="8.484383899485778"><ele>124.0</ele><time>2026-04-27T11:19:33.902Z</time></trkpt><trkpt lat="39.66604476612564" lon="8.484235672879565"><ele>124.0</ele><time>2026-04-27T11:19:34.902Z</time></trkpt><trkpt lat="39.66604501066223" lon="8.48407599751562"><ele>123.80000000000001</ele><time>2026-04-27T11:19:35.902Z</time></trkpt><trkpt lat="39.66604292207071" lon="8.483938218709968"><ele>123.60000000000001</ele><time>2026-04-27T11:19:36.902Z</time></trkpt><trkpt lat="39.66606030722059" lon="8.483807584670895"><ele>123.4</ele><time>2026-04-27T11:19:37.902Z</time></trkpt><trkpt lat="39.66609460788094" lon="8.483671051484714"><ele>123.2</ele><time>2026-04-27T11:19:38.902Z</time></trkpt><trkpt lat="39.666141125576075" lon="8.483558358455502"><ele>123.0</ele><time>2026-04-27T11:19:39.902Z</time></trkpt><trkpt lat="39.66617115032408" lon="8.483438745345621"><ele>118.4</ele><time>2026-04-27T11:19:40.902Z</time></trkpt><trkpt lat="39.66617389562338" lon="8.48330384061805"><ele>113.80000000000001</ele><time>2026-04-27T11:19:41.902Z</time></trkpt><trkpt lat="39.66616248345655" lon="8.483172546645756"><ele>109.2</ele><time>2026-04-27T11:19:42.902Z</time></trkpt><trkpt lat="39.666164941530916" lon="8.483007963480414"><ele>104.6</ele><time>2026-04-27T11:19:43.902Z</time></trkpt><trkpt lat="39.666163858500965" lon="8.482866994043228"><ele>100.0</ele><time>2026-04-27T11:19:44.902Z</time></trkpt><trkpt lat="39.66617175368881" lon="8.482774296148639"><ele>107.0</ele><time>2026-04-27T11:19:45.902Z</time></trkpt><trkpt lat="39.66609812519488" lon="8.48286559098036"><ele>114.0</ele><time>2026-04-27T11:19:49.902Z</time></trkpt><trkpt lat="39.66607527256843" lon="8.481995882341243"><ele>114.0</ele><time>2026-04-27T11:19:50.902Z</time></trkpt><trkpt lat="39.66602908408693" lon="8.481842936524865"><ele>114.0</ele><time>2026-04-27T11:19:51.902Z</time></trkpt><trkpt lat="39.66603209515678" lon="8.481696748900205"><ele>114.0</ele><time>2026-04-27T11:19:52.902Z</time></trkpt><trkpt lat="39.666026111853554" lon="8.481568406604104"><ele>114.0</ele><time>2026-04-27T11:19:53.902Z</time></trkpt><trkpt lat="39.66600685719519" lon="8.481428497783032"><ele>114.0</ele><time>2026-04-27T11:19:54.902Z</time></trkpt><trkpt lat="39.66600873632597" lon="8.481300652245784"><ele>113.25</ele><time>2026-04-27T11:19:55.902Z</time></trkpt><trkpt lat="39.66601399593965" lon="8.48117128837001"><ele>112.5</ele><time>2026-04-27T11:19:56.902Z</time></trkpt><trkpt lat="39.666023656476426" lon="8.481031556197035"><ele>111.75</ele><time>2026-04-27T11:19:57.902Z</time></trkpt><trkpt lat="39.66603158542193" lon="8.480879280937978"><ele>111.0</ele><time>2026-04-27T11:19:58.902Z</time></trkpt><trkpt lat="39.666047621064976" lon="8.480706736625953"><ele>111.0</ele><time>2026-04-27T11:19:59.902Z</time></trkpt><trkpt lat="39.666020524578826" lon="8.480525339825013"><ele>111.0</ele><time>2026-04-27T11:20:00.902Z</time></trkpt><trkpt lat="39.66601064894741" lon="8.48035353995922"><ele>111.0</ele><time>2026-04-27T11:20:01.902Z</time></trkpt><trkpt lat="39.666000120619415" lon="8.480194606566311"><ele>111.0</ele><time>2026-04-27T11:20:02.902Z</time></trkpt><trkpt lat="39.66599229352453" lon="8.480029260734696"><ele>110.0</ele><time>2026-04-27T11:20:03.902Z</time></trkpt><trkpt lat="39.665988039963715" lon="8.479861641556402"><ele>109.0</ele><time>2026-04-27T11:20:04.902Z</time></trkpt><trkpt lat="39.665985422219826" lon="8.479688111747707"><ele>108.0</ele><time>2026-04-27T11:20:05.902Z</time></trkpt><trkpt lat="39.66598553270394" lon="8.479522920609103"><ele>107.0</ele><time>2026-04-27T11:20:06.902Z</time></trkpt><trkpt lat="39.665986713518244" lon="8.479354809344338"><ele>106.75</ele><time>2026-04-27T11:20:07.902Z</time></trkpt><trkpt lat="39.66598165675072" lon="8.479180939834153"><ele>106.5</ele><time>2026-04-27T11:20:08.902Z</time></trkpt><trkpt lat="39.66597601774725" lon="8.47901114785487"><ele>106.25</ele><time>2026-04-27T11:20:09.902Z</time></trkpt><trkpt lat="39.66598757437489" lon="8.478857844831795"><ele>106.0</ele><time>2026-04-27T11:20:10.902Z</time></trkpt><trkpt lat="39.66599522141661" lon="8.478721725428171"><ele>105.6</ele><time>2026-04-27T11:20:11.902Z</time></trkpt><trkpt lat="39.666019614529354" lon="8.478610982548892"><ele>105.19999999999999</ele><time>2026-04-27T11:20:12.902Z</time></trkpt><trkpt lat="39.6660793354377" lon="8.478448559756174"><ele>104.80000000000001</ele><time>2026-04-27T11:20:14.902Z</time></trkpt><trkpt lat="39.666112486233295" lon="8.478355629372064"><ele>104.4</ele><time>2026-04-27T11:20:15.902Z</time></trkpt><trkpt lat="39.666138846455205" lon="8.478242943951434"><ele>104.0</ele><time>2026-04-27T11:20:16.902Z</time></trkpt><trkpt lat="39.66617572821731" lon="8.478136290511593"><ele>100.83333333333333</ele><time>2026-04-27T11:20:17.902Z</time></trkpt><trkpt lat="39.666195673919276" lon="8.478017117406777"><ele>97.66666666666666</ele><time>2026-04-27T11:20:18.902Z</time></trkpt><trkpt lat="39.66621799739261" lon="8.477897340520071"><ele>94.5</ele><time>2026-04-27T11:20:19.902Z</time></trkpt><trkpt lat="39.666238289574416" lon="8.477797279841853"><ele>91.33333333333333</ele><time>2026-04-27T11:20:20.902Z</time></trkpt><trkpt lat="39.66626309800187" lon="8.47771422476422"><ele>88.16666666666666</ele><time>2026-04-27T11:20:21.902Z</time></trkpt><trkpt lat="39.66627951832366" lon="8.47763442840112"><ele>85.0</ele><time>2026-04-27T11:20:22.902Z</time></trkpt><trkpt lat="39.66628312961734" lon="8.477549651127632"><ele>84.33333333333333</ele><time>2026-04-27T11:20:23.902Z</time></trkpt><trkpt lat="39.666278949390076" lon="8.477456312298875"><ele>83.66666666666666</ele><time>2026-04-27T11:20:24.902Z</time></trkpt><trkpt lat="39.66626760422069" lon="8.47735165730454"><ele>83.0</ele><time>2026-04-27T11:20:25.902Z</time></trkpt><trkpt lat="39.66627309373973" lon="8.477252323220979"><ele>82.33333333333333</ele><time>2026-04-27T11:20:26.902Z</time></trkpt><trkpt lat="39.666277273079565" lon="8.477166175370124"><ele>81.66666666666667</ele><time>2026-04-27T11:20:27.902Z</time></trkpt><trkpt lat="39.66628330919841" lon="8.47707367564876"><ele>81.0</ele><time>2026-04-27T11:20:28.902Z</time></trkpt><trkpt lat="39.66633777737682" lon="8.476900484484768"><ele>79.8</ele><time>2026-04-27T11:20:30.902Z</time></trkpt><trkpt lat="39.666394090395976" lon="8.47678789188903"><ele>78.6</ele><time>2026-04-27T11:20:31.902Z</time></trkpt><trkpt lat="39.66643010700607" lon="8.476664236935923"><ele>77.4</ele><time>2026-04-27T11:20:32.902Z</time></trkpt><trkpt lat="39.66645642531119" lon="8.476531977299585"><ele>76.2</ele><time>2026-04-27T11:20:33.903Z</time></trkpt><trkpt lat="39.66647608154045" lon="8.476392233374776"><ele>75.0</ele><time>2026-04-27T11:20:34.903Z</time></trkpt><trkpt lat="39.666506101174384" lon="8.476248987593314"><ele>73.8</ele><time>2026-04-27T11:20:35.903Z</time></trkpt><trkpt lat="39.66654290233078" lon="8.47612436121234"><ele>72.6</ele><time>2026-04-27T11:20:36.903Z</time></trkpt><trkpt lat="39.66658707229155" lon="8.476009900690702"><ele>71.4</ele><time>2026-04-27T11:20:37.903Z</time></trkpt><trkpt lat="39.66663626722096" lon="8.475873640277376"><ele>70.2</ele><time>2026-04-27T11:20:38.903Z</time></trkpt><trkpt lat="39.66668249600426" lon="8.475727776849611"><ele>69.0</ele><time>2026-04-27T11:20:39.903Z</time></trkpt><trkpt lat="39.666726384438576" lon="8.475562546350108"><ele>68.25</ele><time>2026-04-27T11:20:40.903Z</time></trkpt><trkpt lat="39.666757637128185" lon="8.475392440952653"><ele>67.5</ele><time>2026-04-27T11:20:41.903Z</time></trkpt><trkpt lat="39.66678332638752" lon="8.475243536765737"><ele>66.75</ele><time>2026-04-27T11:20:42.903Z</time></trkpt><trkpt lat="39.666840064537055" lon="8.47512021954181"><ele>66.0</ele><time>2026-04-27T11:20:43.903Z</time></trkpt><trkpt lat="39.66687910775203" lon="8.47499205147513"><ele>66.0</ele><time>2026-04-27T11:20:44.903Z</time></trkpt><trkpt lat="39.666909164151946" lon="8.474854658186405"><ele>66.0</ele><time>2026-04-27T11:20:45.903Z</time></trkpt><trkpt lat="39.666932599190716" lon="8.474718584541883"><ele>66.0</ele><time>2026-04-27T11:20:46.903Z</time></trkpt><trkpt lat="39.6669690913419" lon="8.47459704445673"><ele>66.0</ele><time>2026-04-27T11:20:47.903Z</time></trkpt><trkpt lat="39.6669747108225" lon="8.474480945573928"><ele>66.0</ele><time>2026-04-27T11:20:48.903Z</time></trkpt><trkpt lat="39.66694822524148" lon="8.47436195637502"><ele>65.6</ele><time>2026-04-27T11:20:49.903Z</time></trkpt><trkpt lat="39.66692859911872" lon="8.474242192154795"><ele>65.19999999999999</ele><time>2026-04-27T11:20:50.903Z</time></trkpt><trkpt lat="39.66691060705977" lon="8.474121019418487"><ele>64.80000000000001</ele><time>2026-04-27T11:20:51.903Z</time></trkpt><trkpt lat="39.666902037386514" lon="8.47399623405527"><ele>64.4</ele><time>2026-04-27T11:20:52.903Z</time></trkpt><trkpt lat="39.666924535348784" lon="8.473875308162167"><ele>64.0</ele><time>2026-04-27T11:20:53.903Z</time></trkpt><trkpt lat="39.66694109185222" lon="8.473750197719463"><ele>62.6</ele><time>2026-04-27T11:20:54.902Z</time></trkpt><trkpt lat="39.666954061530866" lon="8.473625899019355"><ele>61.2</ele><time>2026-04-27T11:20:55.901Z</time></trkpt><trkpt lat="39.66693533599083" lon="8.473525648875711"><ele>59.800000000000004</ele><time>2026-04-27T11:20:56.901Z</time></trkpt><trkpt lat="39.66692750739251" lon="8.47343968530309"><ele>58.400000000000006</ele><time>2026-04-27T11:20:57.901Z</time></trkpt><trkpt lat="39.66690227563289" lon="8.47326854876401"><ele>57.0</ele><time>2026-04-27T11:20:59.902Z</time></trkpt><trkpt lat="39.66687689335211" lon="8.47309046508317"><ele>57.0</ele><time>2026-04-27T11:21:01.902Z</time></trkpt><trkpt lat="39.66687319181866" lon="8.472939918739597"><ele>57.0</ele><time>2026-04-27T11:21:03.904Z</time></trkpt><trkpt lat="39.66691271046544" lon="8.472801899653753"><ele>57.0</ele><time>2026-04-27T11:21:05.907Z</time></trkpt><trkpt lat="39.66698487674539" lon="8.472664162528359"><ele>57.0</ele><time>2026-04-27T11:21:07.91Z</time></trkpt><trkpt lat="39.66706295365249" lon="8.472548466454331"><ele>54.6</ele><time>2026-04-27T11:21:09.913Z</time></trkpt><trkpt lat="39.66714288018421" lon="8.472455741541511"><ele>52.2</ele><time>2026-04-27T11:21:11.915Z</time></trkpt><trkpt lat="39.66723814766812" lon="8.472391828491741"><ele>49.8</ele><time>2026-04-27T11:21:13.918Z</time></trkpt><trkpt lat="39.667325167556854" lon="8.47239179998693"><ele>47.4</ele><time>2026-04-27T11:21:15.92Z</time></trkpt><trkpt lat="39.66739412087155" lon="8.472335279002607"><ele>45.0</ele><time>2026-04-27T11:21:18.922Z</time></trkpt><trkpt lat="39.66737588267056" lon="8.47224492526225"><ele>45.0</ele><time>2026-04-27T11:21:20.923Z</time></trkpt><trkpt lat="39.66726979312521" lon="8.472152281736475"><ele>45.0</ele><time>2026-04-27T11:21:22.925Z</time></trkpt><trkpt lat="39.667195794100046" lon="8.47211570581528"><ele>45.0</ele><time>2026-04-27T11:21:23.925Z</time></trkpt><trkpt lat="39.667131090754" lon="8.472091217741491"><ele>45.0</ele><time>2026-04-27T11:21:24.926Z</time></trkpt><trkpt lat="39.66704331467555" lon="8.472056580097641"><ele>45.0</ele><time>2026-04-27T11:21:26.927Z</time></trkpt><trkpt lat="39.667017029998625" lon="8.471972670440255"><ele>45.0</ele><time>2026-04-27T11:21:28.928Z</time></trkpt><trkpt lat="39.66705332322668" lon="8.471863373081696"><ele>43.2</ele><time>2026-04-27T11:21:30.928Z</time></trkpt><trkpt lat="39.66708035480723" lon="8.471697600299043"><ele>41.4</ele><time>2026-04-27T11:21:32.929Z</time></trkpt><trkpt lat="39.667117460229626" lon="8.471618469366785"><ele>39.6</ele><time>2026-04-27T11:21:33.929Z</time></trkpt><trkpt lat="39.6671711071638" lon="8.471539229175074"><ele>37.8</ele><time>2026-04-27T11:21:34.929Z</time></trkpt><trkpt lat="39.667243896333055" lon="8.471460962885455"><ele>36.0</ele><time>2026-04-27T11:21:35.93Z</time></trkpt><trkpt lat="39.667303104641285" lon="8.471406278155358"><ele>36.0</ele><time>2026-04-27T11:21:36.93Z</time></trkpt><trkpt lat="39.66741449943662" lon="8.471354293718381"><ele>36.0</ele><time>2026-04-27T11:21:38.93Z</time></trkpt><trkpt lat="39.66748531424818" lon="8.471279416632768"><ele>36.0</ele><time>2026-04-27T11:21:40.931Z</time></trkpt><trkpt lat="39.667541835510356" lon="8.471139058965898"><ele>36.0</ele><time>2026-04-27T11:21:42.931Z</time></trkpt><trkpt lat="39.66759037303268" lon="8.471064769549574"><ele>36.0</ele><time>2026-04-27T11:21:43.931Z</time></trkpt><trkpt lat="39.667651958547424" lon="8.471005892879322"><ele>35.666666666666664</ele><time>2026-04-27T11:21:44.932Z</time></trkpt><trkpt lat="39.66771660175943" lon="8.470964768516282"><ele>35.333333333333336</ele><time>2026-04-27T11:21:45.932Z</time></trkpt><trkpt lat="39.66778358075537" lon="8.470949934086216"><ele>35.0</ele><time>2026-04-27T11:21:46.932Z</time></trkpt><trkpt lat="39.667857820379524" lon="8.470948517389347"><ele>34.66666666666667</ele><time>2026-04-27T11:21:47.932Z</time></trkpt><trkpt lat="39.667924124323015" lon="8.470960070554863"><ele>34.333333333333336</ele><time>2026-04-27T11:21:48.932Z</time></trkpt><trkpt lat="39.66799195794294" lon="8.470917387382869"><ele>34.0</ele><time>2026-04-27T11:21:50.932Z</time></trkpt><trkpt lat="39.668046438294226" lon="8.470790556515478"><ele>34.57142857142857</ele><time>2026-04-27T11:21:52.933Z</time></trkpt><trkpt lat="39.66808428348573" lon="8.470704575030581"><ele>35.14285714285714</ele><time>2026-04-27T11:21:53.933Z</time></trkpt><trkpt lat="39.66812219106915" lon="8.47062163153491"><ele>35.71428571428571</ele><time>2026-04-27T11:21:54.933Z</time></trkpt><trkpt lat="39.6681620953899" lon="8.470536676739073"><ele>36.285714285714285</ele><time>2026-04-27T11:21:55.933Z</time></trkpt><trkpt lat="39.668189544646836" lon="8.470457620775138"><ele>36.85714285714286</ele><time>2026-04-27T11:21:56.933Z</time></trkpt><trkpt lat="39.66820807160471" lon="8.470362168915907"><ele>37.42857142857142</ele><time>2026-04-27T11:21:57.933Z</time></trkpt><trkpt lat="39.66824585881654" lon="8.470273145437112"><ele>38.0</ele><time>2026-04-27T11:21:58.933Z</time></trkpt><trkpt lat="39.66830228125325" lon="8.470188215038515"><ele>38.0</ele><time>2026-04-27T11:21:59.933Z</time></trkpt><trkpt lat="39.668363553178985" lon="8.470089322655847"><ele>38.0</ele><time>2026-04-27T11:22:00.933Z</time></trkpt><trkpt lat="39.66843184589717" lon="8.469983207471286"><ele>38.0</ele><time>2026-04-27T11:22:01.933Z</time></trkpt><trkpt lat="39.66850485557892" lon="8.469879739497834"><ele>38.0</ele><time>2026-04-27T11:22:02.933Z</time></trkpt><trkpt lat="39.668582900672476" lon="8.469775878080242"><ele>38.0</ele><time>2026-04-27T11:22:03.933Z</time></trkpt><trkpt lat="39.66866139990245" lon="8.469674322213901"><ele>38.4</ele><time>2026-04-27T11:22:04.933Z</time></trkpt><trkpt lat="39.66875297983433" lon="8.469580619041617"><ele>38.8</ele><time>2026-04-27T11:22:05.933Z</time></trkpt><trkpt lat="39.668836448591264" lon="8.469481326389467"><ele>39.2</ele><time>2026-04-27T11:22:06.934Z</time></trkpt><trkpt lat="39.66890820739311" lon="8.469382027563185"><ele>39.6</ele><time>2026-04-27T11:22:07.934Z</time></trkpt><trkpt lat="39.66896445622211" lon="8.469283259630068"><ele>40.0</ele><time>2026-04-27T11:22:08.934Z</time></trkpt><trkpt lat="39.66902170615452" lon="8.469186846789464"><ele>40.0</ele><time>2026-04-27T11:22:09.934Z</time></trkpt><trkpt lat="39.669086014265346" lon="8.46907727616876"><ele>40.0</ele><time>2026-04-27T11:22:10.934Z</time></trkpt><trkpt lat="39.66915774069792" lon="8.468984133448783"><ele>40.0</ele><time>2026-04-27T11:22:11.934Z</time></trkpt><trkpt lat="39.669238983626876" lon="8.468891934141205"><ele>40.0</ele><time>2026-04-27T11:22:12.934Z</time></trkpt><trkpt lat="39.66931236846426" lon="8.46880771189295"><ele>40.0</ele><time>2026-04-27T11:22:13.934Z</time></trkpt><trkpt lat="39.66939117685594" lon="8.468714734163582"><ele>39.4</ele><time>2026-04-27T11:22:14.934Z</time></trkpt><trkpt lat="39.66946993237887" lon="8.46863073243488"><ele>38.8</ele><time>2026-04-27T11:22:15.934Z</time></trkpt><trkpt lat="39.66954979772537" lon="8.468559431031208"><ele>38.2</ele><time>2026-04-27T11:22:16.934Z</time></trkpt><trkpt lat="39.669634225598315" lon="8.46850242340693"><ele>37.6</ele><time>2026-04-27T11:22:17.934Z</time></trkpt><trkpt lat="39.669719463445816" lon="8.468468666348905"><ele>37.0</ele><time>2026-04-27T11:22:18.934Z</time></trkpt><trkpt lat="39.66980534749375" lon="8.468434446292585"><ele>37.0</ele><time>2026-04-27T11:22:19.934Z</time></trkpt><trkpt lat="39.669877165206344" lon="8.468417475225477"><ele>37.0</ele><time>2026-04-27T11:22:20.934Z</time></trkpt><trkpt lat="39.66994523666192" lon="8.468329011155348"><ele>37.0</ele><time>2026-04-27T11:22:22.934Z</time></trkpt><trkpt lat="39.66996952935316" lon="8.468248475723094"><ele>37.0</ele><time>2026-04-27T11:22:23.934Z</time></trkpt><trkpt lat="39.66999869159618" lon="8.468152402422726"><ele>37.0</ele><time>2026-04-27T11:22:24.934Z</time></trkpt><trkpt lat="39.67003355543598" lon="8.468061189946253"><ele>37.0</ele><time>2026-04-27T11:22:25.934Z</time></trkpt><trkpt lat="39.67008825910155" lon="8.4679682520678"><ele>37.0</ele><time>2026-04-27T11:22:26.934Z</time></trkpt><trkpt lat="39.67013871643381" lon="8.467857444191205"><ele>37.0</ele><time>2026-04-27T11:22:27.934Z</time></trkpt><trkpt lat="39.67019405229411" lon="8.46778749081919"><ele>37.0</ele><time>2026-04-27T11:22:28.934Z</time></trkpt><trkpt lat="39.67023781650764" lon="8.467724061516675"><ele>37.0</ele><time>2026-04-27T11:22:29.934Z</time></trkpt><trkpt lat="39.67028976014357" lon="8.467657671732239"><ele>37.0</ele><time>2026-04-27T11:22:31.934Z</time></trkpt><trkpt lat="39.670275513796405" lon="8.467538233847291"><ele>37.0</ele><time>2026-04-27T11:22:33.934Z</time></trkpt><trkpt lat="39.67018907054362" lon="8.46749226743477"><ele>37.0</ele><time>2026-04-27T11:22:34.934Z</time></trkpt><trkpt lat="39.670128923591434" lon="8.46745233675152"><ele>37.0</ele><time>2026-04-27T11:22:35.934Z</time></trkpt><trkpt lat="39.67006076802354" lon="8.467399049895072"><ele>37.0</ele><time>2026-04-27T11:22:36.935Z</time></trkpt><trkpt lat="39.66999483552659" lon="8.467347501118795"><ele>37.0</ele><time>2026-04-27T11:22:37.935Z</time></trkpt><trkpt lat="39.669936907950515" lon="8.467302210949745"><ele>37.0</ele><time>2026-04-27T11:22:38.935Z</time></trkpt><trkpt lat="39.66985570778068" lon="8.467242416905261"><ele>37.0</ele><time>2026-04-27T11:22:39.935Z</time></trkpt><trkpt lat="39.66976709829283" lon="8.46718914559352"><ele>37.0</ele><time>2026-04-27T11:22:40.935Z</time></trkpt><trkpt lat="39.669657212249966" lon="8.467145701616905"><ele>37.0</ele><time>2026-04-27T11:22:41.935Z</time></trkpt><trkpt lat="39.66957328360789" lon="8.46709164231394"><ele>37.0</ele><time>2026-04-27T11:22:42.935Z</time></trkpt><trkpt lat="39.66949749721853" lon="8.467058761225436"><ele>37.0</ele><time>2026-04-27T11:22:43.935Z</time></trkpt><trkpt lat="39.66941732704955" lon="8.46702587093098"><ele>37.0</ele><time>2026-04-27T11:22:44.935Z</time></trkpt><trkpt lat="39.669282695618705" lon="8.466963195904416"><ele>35.5</ele><time>2026-04-27T11:22:46.935Z</time></trkpt><trkpt lat="39.669207894925314" lon="8.466917654210198"><ele>34.0</ele><time>2026-04-27T11:22:47.935Z</time></trkpt><trkpt lat="39.66913332056815" lon="8.466867603460816"><ele>32.5</ele><time>2026-04-27T11:22:48.935Z</time></trkpt><trkpt lat="39.66906480201083" lon="8.466798913182576"><ele>31.0</ele><time>2026-04-27T11:22:49.935Z</time></trkpt><trkpt lat="39.669009819972146" lon="8.466719171742687"><ele>29.500000000000004</ele><time>2026-04-27T11:22:50.935Z</time></trkpt><trkpt lat="39.668956338808535" lon="8.466624550100375"><ele>28.0</ele><time>2026-04-27T11:22:51.935Z</time></trkpt><trkpt lat="39.668911034228465" lon="8.466521406421169"><ele>28.0</ele><time>2026-04-27T11:22:52.935Z</time></trkpt><trkpt lat="39.66887119730561" lon="8.466406145382832"><ele>27.999999999999996</ele><time>2026-04-27T11:22:53.935Z</time></trkpt><trkpt lat="39.66885367554132" lon="8.46627299612837"><ele>27.999999999999996</ele><time>2026-04-27T11:22:54.935Z</time></trkpt><trkpt lat="39.6688218382097" lon="8.466142802902212"><ele>28.0</ele><time>2026-04-27T11:22:55.935Z</time></trkpt><trkpt lat="39.668807391370535" lon="8.466002887233806"><ele>28.0</ele><time>2026-04-27T11:22:56.935Z</time></trkpt><trkpt lat="39.66879220978883" lon="8.465873320011864"><ele>28.0</ele><time>2026-04-27T11:22:57.935Z</time></trkpt><trkpt lat="39.66877201371517" lon="8.465758303669476"><ele>27.999999999999996</ele><time>2026-04-27T11:22:58.935Z</time></trkpt><trkpt lat="39.668749196623224" lon="8.465643577063064"><ele>27.999999999999996</ele><time>2026-04-27T11:22:59.935Z</time></trkpt><trkpt lat="39.66874707513593" lon="8.465536684779767"><ele>28.0</ele><time>2026-04-27T11:23:00.933Z</time></trkpt><trkpt lat="39.66876689201454" lon="8.465414957425828"><ele>28.0</ele><time>2026-04-27T11:23:02.933Z</time></trkpt><trkpt lat="39.66867114064151" lon="8.46536438017137"><ele>27.500000000000004</ele><time>2026-04-27T11:23:04.933Z</time></trkpt><trkpt lat="39.66860968135849" lon="8.465338880972405"><ele>27.0</ele><time>2026-04-27T11:23:05.933Z</time></trkpt><trkpt lat="39.668537570998765" lon="8.46531142899273"><ele>26.5</ele><time>2026-04-27T11:23:06.933Z</time></trkpt><trkpt lat="39.66846685918047" lon="8.465264130490606"><ele>26.0</ele><time>2026-04-27T11:23:07.933Z</time></trkpt><trkpt lat="39.668406890107214" lon="8.465184751494567"><ele>25.500000000000004</ele><time>2026-04-27T11:23:08.933Z</time></trkpt><trkpt lat="39.66836775965135" lon="8.465073095930757"><ele>25.0</ele><time>2026-04-27T11:23:09.934Z</time></trkpt><trkpt lat="39.668335279846104" lon="8.464950014365487"><ele>24.8</ele><time>2026-04-27T11:23:10.933Z</time></trkpt><trkpt lat="39.668345402342375" lon="8.464830671465027"><ele>24.6</ele><time>2026-04-27T11:23:11.933Z</time></trkpt><trkpt lat="39.668361221651715" lon="8.464694389933337"><ele>24.4</ele><time>2026-04-27T11:23:12.934Z</time></trkpt><trkpt lat="39.66838545605173" lon="8.464548047763664"><ele>24.2</ele><time>2026-04-27T11:23:13.934Z</time></trkpt><trkpt lat="39.668424651431074" lon="8.46439657978288"><ele>24.0</ele><time>2026-04-27T11:23:14.934Z</time></trkpt><trkpt lat="39.66846671751755" lon="8.464227558808467"><ele>24.75</ele><time>2026-04-27T11:23:15.934Z</time></trkpt><trkpt lat="39.668491684714496" lon="8.464034562411193"><ele>25.5</ele><time>2026-04-27T11:23:16.934Z</time></trkpt><trkpt lat="39.66851770884309" lon="8.463873788580646"><ele>26.25</ele><time>2026-04-27T11:23:17.934Z</time></trkpt><trkpt lat="39.66855597645706" lon="8.463699004481194"><ele>27.0</ele><time>2026-04-27T11:23:18.934Z</time></trkpt><trkpt lat="39.66859725441496" lon="8.463517560630136"><ele>24.333333333333332</ele><time>2026-04-27T11:23:19.934Z</time></trkpt><trkpt lat="39.668647098946245" lon="8.463329725460584"><ele>21.666666666666664</ele><time>2026-04-27T11:23:20.934Z</time></trkpt><trkpt lat="39.668687123842574" lon="8.463123187864294"><ele>19.0</ele><time>2026-04-27T11:23:21.934Z</time></trkpt><trkpt lat="39.668726223187214" lon="8.462919635972014"><ele>19.0</ele><time>2026-04-27T11:23:22.934Z</time></trkpt><trkpt lat="39.66876176004864" lon="8.462730924476556"><ele>19.0</ele><time>2026-04-27T11:23:23.934Z</time></trkpt><trkpt lat="39.66879492206654" lon="8.462550814382782"><ele>19.0</ele><time>2026-04-27T11:23:24.934Z</time></trkpt><trkpt lat="39.668808210937215" lon="8.462356755680366"><ele>19.0</ele><time>2026-04-27T11:23:25.934Z</time></trkpt><trkpt lat="39.66881206628781" lon="8.462159035116752"><ele>18.25</ele><time>2026-04-27T11:23:26.934Z</time></trkpt><trkpt lat="39.66881865135266" lon="8.461999489394653"><ele>17.5</ele><time>2026-04-27T11:23:27.934Z</time></trkpt><trkpt lat="39.66880241297912" lon="8.461845053120337"><ele>16.75</ele><time>2026-04-27T11:23:28.934Z</time></trkpt><trkpt lat="39.66876282685359" lon="8.461685549467012"><ele>16.0</ele><time>2026-04-27T11:23:29.934Z</time></trkpt><trkpt lat="39.66868728734982" lon="8.461550053264508"><ele>16.75</ele><time>2026-04-27T11:23:30.934Z</time></trkpt><trkpt lat="39.66860265008359" lon="8.461432814611786"><ele>17.5</ele><time>2026-04-27T11:23:31.934Z</time></trkpt><trkpt lat="39.66850602086205" lon="8.461324522034506"><ele>18.25</ele><time>2026-04-27T11:23:32.934Z</time></trkpt><trkpt lat="39.668396321608306" lon="8.461217106375898"><ele>19.0</ele><time>2026-04-27T11:23:33.934Z</time></trkpt><trkpt lat="39.6682795435759" lon="8.4611073218995"><ele>19.0</ele><time>2026-04-27T11:23:34.934Z</time></trkpt><trkpt lat="39.66816065209086" lon="8.461004271959844"><ele>19.0</ele><time>2026-04-27T11:23:35.934Z</time></trkpt><trkpt lat="39.668050796763936" lon="8.460906162581228"><ele>19.0</ele><time>2026-04-27T11:23:36.934Z</time></trkpt><trkpt lat="39.66795333883653" lon="8.460828704782335"><ele>19.0</ele><time>2026-04-27T11:23:37.934Z</time></trkpt><trkpt lat="39.667871100617745" lon="8.460773790788018"><ele>19.0</ele><time>2026-04-27T11:23:38.934Z</time></trkpt><trkpt lat="39.66777726565825" lon="8.460782031526676"><ele>19.0</ele><time>2026-04-27T11:23:39.934Z</time></trkpt><trkpt lat="39.667694519827" lon="8.460818327965805"><ele>19.0</ele><time>2026-04-27T11:23:40.934Z</time></trkpt><trkpt lat="39.6676179620287" lon="8.460869799604053"><ele>19.0</ele><time>2026-04-27T11:23:41.934Z</time></trkpt><trkpt lat="39.667545235085925" lon="8.460954423159604"><ele>19.0</ele><time>2026-04-27T11:23:42.935Z</time></trkpt><trkpt lat="39.667474256268214" lon="8.461062405383968"><ele>21.75</ele><time>2026-04-27T11:23:43.935Z</time></trkpt><trkpt lat="39.66740807462059" lon="8.461179703789453"><ele>24.5</ele><time>2026-04-27T11:23:44.935Z</time></trkpt><trkpt lat="39.66735638994738" lon="8.461306865529986"><ele>27.25</ele><time>2026-04-27T11:23:45.935Z</time></trkpt><trkpt lat="39.6673115375692" lon="8.461458885233261"><ele>30.0</ele><time>2026-04-27T11:23:46.935Z</time></trkpt><trkpt lat="39.66728258433935" lon="8.461633854762143"><ele>34.5</ele><time>2026-04-27T11:23:47.935Z</time></trkpt><trkpt lat="39.66728022317616" lon="8.461818220530409"><ele>39.0</ele><time>2026-04-27T11:23:48.935Z</time></trkpt><trkpt lat="39.667300647428306" lon="8.462005830017088"><ele>43.5</ele><time>2026-04-27T11:23:49.935Z</time></trkpt><trkpt lat="39.66732084300239" lon="8.462185691695817"><ele>48.0</ele><time>2026-04-27T11:23:50.935Z</time></trkpt><trkpt lat="39.66734041033414" lon="8.462375650394408"><ele>48.75</ele><time>2026-04-27T11:23:51.935Z</time></trkpt><trkpt lat="39.66734352472995" lon="8.462565284428216"><ele>49.5</ele><time>2026-04-27T11:23:52.935Z</time></trkpt><trkpt lat="39.667360196504895" lon="8.462758211988945"><ele>50.25</ele><time>2026-04-27T11:23:53.935Z</time></trkpt><trkpt lat="39.66737706934754" lon="8.462953864073782"><ele>51.0</ele><time>2026-04-27T11:23:54.935Z</time></trkpt><trkpt lat="39.66739376486218" lon="8.463147459991696"><ele>51.33333333333333</ele><time>2026-04-27T11:23:55.935Z</time></trkpt><trkpt lat="39.667411456571216" lon="8.463352607496153"><ele>51.666666666666664</ele><time>2026-04-27T11:23:56.935Z</time></trkpt><trkpt lat="39.66742802229112" lon="8.463544698298179"><ele>52.0</ele><time>2026-04-27T11:23:57.935Z</time></trkpt><trkpt lat="39.667444775926526" lon="8.463738968176877"><ele>52.25</ele><time>2026-04-27T11:23:58.935Z</time></trkpt><trkpt lat="39.6674603991297" lon="8.463930183407548"><ele>52.5</ele><time>2026-04-27T11:23:59.935Z</time></trkpt><trkpt lat="39.66748851492678" lon="8.464103274807044"><ele>52.75</ele><time>2026-04-27T11:24:00.935Z</time></trkpt><trkpt lat="39.66748119336065" lon="8.464278712872012"><ele>53.0</ele><time>2026-04-27T11:24:01.935Z</time></trkpt><trkpt lat="39.66746289542642" lon="8.464452166921912"><ele>53.0</ele><time>2026-04-27T11:24:02.935Z</time></trkpt><trkpt lat="39.66742504488966" lon="8.464609652238028"><ele>53.0</ele><time>2026-04-27T11:24:03.935Z</time></trkpt><trkpt lat="39.667367087213705" lon="8.464759982168685"><ele>53.0</ele><time>2026-04-27T11:24:04.935Z</time></trkpt><trkpt lat="39.66728233548987" lon="8.46488915637436"><ele>53.0</ele><time>2026-04-27T11:24:05.935Z</time></trkpt><trkpt lat="39.66719024249949" lon="8.46503215920896"><ele>52.333333333333336</ele><time>2026-04-27T11:24:06.935Z</time></trkpt><trkpt lat="39.66709008901845" lon="8.46517528914324"><ele>51.66666666666667</ele><time>2026-04-27T11:24:07.935Z</time></trkpt><trkpt lat="39.66698531924504" lon="8.465325970622656"><ele>51.0</ele><time>2026-04-27T11:24:08.935Z</time></trkpt><trkpt lat="39.666896699254146" lon="8.46548406177269"><ele>59.66666666666667</ele><time>2026-04-27T11:24:09.935Z</time></trkpt><trkpt lat="39.666775953269344" lon="8.465626934505524"><ele>68.33333333333334</ele><time>2026-04-27T11:24:10.935Z</time></trkpt><trkpt lat="39.66667203685924" lon="8.465805129790574"><ele>77.0</ele><time>2026-04-27T11:24:11.935Z</time></trkpt><trkpt lat="39.66655479623676" lon="8.46597127436835"><ele>77.0</ele><time>2026-04-27T11:24:12.935Z</time></trkpt><trkpt lat="39.66643559955944" lon="8.46614167417054"><ele>77.0</ele><time>2026-04-27T11:24:13.935Z</time></trkpt><trkpt lat="39.666319327822734" lon="8.466307322808019"><ele>77.0</ele><time>2026-04-27T11:24:14.935Z</time></trkpt><trkpt lat="39.66619529778334" lon="8.466477018067447"><ele>80.0</ele><time>2026-04-27T11:24:15.935Z</time></trkpt><trkpt lat="39.66607241249333" lon="8.466652618629691"><ele>83.0</ele><time>2026-04-27T11:24:16.935Z</time></trkpt><trkpt lat="39.66595558908298" lon="8.466836433653922"><ele>86.0</ele><time>2026-04-27T11:24:17.935Z</time></trkpt><trkpt lat="39.665828707868606" lon="8.467012129315387"><ele>82.0</ele><time>2026-04-27T11:24:18.935Z</time></trkpt><trkpt lat="39.665708661912454" lon="8.467186605858828"><ele>78.0</ele><time>2026-04-27T11:24:19.935Z</time></trkpt><trkpt lat="39.66558223965178" lon="8.46735718831438"><ele>74.0</ele><time>2026-04-27T11:24:20.935Z</time></trkpt><trkpt lat="39.66545979446291" lon="8.467528923862874"><ele>74.0</ele><time>2026-04-27T11:24:21.935Z</time></trkpt><trkpt lat="39.6653307100222" lon="8.467693926657285"><ele>74.0</ele><time>2026-04-27T11:24:22.935Z</time></trkpt><trkpt lat="39.66519658832024" lon="8.467852036353133"><ele>74.0</ele><time>2026-04-27T11:24:23.935Z</time></trkpt><trkpt lat="39.665066237823865" lon="8.468005648303613"><ele>78.0</ele><time>2026-04-27T11:24:24.935Z</time></trkpt><trkpt lat="39.66492714959771" lon="8.468160539861598"><ele>82.0</ele><time>2026-04-27T11:24:25.935Z</time></trkpt><trkpt lat="39.66480852827128" lon="8.468331344679514"><ele>86.0</ele><time>2026-04-27T11:24:26.935Z</time></trkpt><trkpt lat="39.66469736507934" lon="8.46851708458994"><ele>86.0</ele><time>2026-04-27T11:24:27.935Z</time></trkpt><trkpt lat="39.664586476346244" lon="8.468706172835043"><ele>86.0</ele><time>2026-04-27T11:24:28.935Z</time></trkpt><trkpt lat="39.664480072139916" lon="8.468893805399661"><ele>86.0</ele><time>2026-04-27T11:24:29.935Z</time></trkpt><trkpt lat="39.66437441327604" lon="8.46908792572473"><ele>92.66666666666667</ele><time>2026-04-27T11:24:30.935Z</time></trkpt><trkpt lat="39.66426679693872" lon="8.469274855170248"><ele>99.33333333333334</ele><time>2026-04-27T11:24:31.935Z</time></trkpt><trkpt lat="39.664165383423345" lon="8.469453680640234"><ele>106.0</ele><time>2026-04-27T11:24:32.935Z</time></trkpt><trkpt lat="39.66407883820594" lon="8.46961996475121"><ele>106.25</ele><time>2026-04-27T11:24:33.935Z</time></trkpt><trkpt lat="39.6640243953212" lon="8.46976794389863"><ele>106.5</ele><time>2026-04-27T11:24:34.935Z</time></trkpt><trkpt lat="39.66399270669972" lon="8.469919344305001"><ele>106.75</ele><time>2026-04-27T11:24:35.935Z</time></trkpt><trkpt lat="39.663990712294336" lon="8.470076363868861"><ele>107.0</ele><time>2026-04-27T11:24:36.935Z</time></trkpt><trkpt lat="39.6640044892866" lon="8.470241014803664"><ele>107.0</ele><time>2026-04-27T11:24:37.935Z</time></trkpt><trkpt lat="39.664042241841415" lon="8.470412873549265"><ele>107.0</ele><time>2026-04-27T11:24:38.935Z</time></trkpt><trkpt lat="39.66409751929793" lon="8.470583214031198"><ele>107.0</ele><time>2026-04-27T11:24:39.936Z</time></trkpt><trkpt lat="39.66415338300015" lon="8.4707440551638"><ele>107.0</ele><time>2026-04-27T11:24:40.936Z</time></trkpt><trkpt lat="39.664192001715755" lon="8.470892904771562"><ele>108.0</ele><time>2026-04-27T11:24:41.936Z</time></trkpt><trkpt lat="39.6641968851086" lon="8.47104605581179"><ele>109.0</ele><time>2026-04-27T11:24:42.936Z</time></trkpt><trkpt lat="39.664144917570006" lon="8.471195610232472"><ele>110.0</ele><time>2026-04-27T11:24:43.936Z</time></trkpt><trkpt lat="39.66410252373935" lon="8.4713509729245"><ele>111.0</ele><time>2026-04-27T11:24:44.936Z</time></trkpt><trkpt lat="39.66407247692745" lon="8.471522067776261"><ele>111.5</ele><time>2026-04-27T11:24:45.936Z</time></trkpt><trkpt lat="39.66402733454739" lon="8.47169629278202"><ele>112.0</ele><time>2026-04-27T11:24:46.936Z</time></trkpt><trkpt lat="39.664010896009664" lon="8.471876627898602"><ele>112.5</ele><time>2026-04-27T11:24:47.936Z</time></trkpt><trkpt lat="39.664021447893866" lon="8.472052221059531"><ele>113.0</ele><time>2026-04-27T11:24:48.936Z</time></trkpt><trkpt lat="39.66405530416783" lon="8.47222419377104"><ele>113.5</ele><time>2026-04-27T11:24:49.936Z</time></trkpt><trkpt lat="39.66409838485915" lon="8.47239073683183"><ele>114.0</ele><time>2026-04-27T11:24:50.936Z</time></trkpt><trkpt lat="39.66410192472858" lon="8.47254460817764"><ele>114.5</ele><time>2026-04-27T11:24:51.936Z</time></trkpt><trkpt lat="39.66407554200831" lon="8.472666851515015"><ele>115.0</ele><time>2026-04-27T11:24:52.936Z</time></trkpt><trkpt lat="39.664047428912966" lon="8.47279274147776"><ele>115.0</ele><time>2026-04-27T11:24:53.936Z</time></trkpt><trkpt lat="39.66395917206857" lon="8.472866804575656"><ele>115.0</ele><time>2026-04-27T11:24:54.936Z</time></trkpt><trkpt lat="39.663862068317215" lon="8.472944954134984"><ele>115.0</ele><time>2026-04-27T11:24:55.936Z</time></trkpt><trkpt lat="39.66374508255505" lon="8.472990793330059"><ele>115.0</ele><time>2026-04-27T11:24:56.936Z</time></trkpt><trkpt lat="39.66362164298144" lon="8.473023928489031"><ele>118.5</ele><time>2026-04-27T11:24:57.936Z</time></trkpt><trkpt lat="39.663500128845406" lon="8.473074227226034"><ele>122.0</ele><time>2026-04-27T11:24:58.936Z</time></trkpt><trkpt lat="39.66335454968631" lon="8.473098378507428"><ele>125.5</ele><time>2026-04-27T11:24:59.936Z</time></trkpt><trkpt lat="39.66319031409019" lon="8.473144043581465"><ele>129.0</ele><time>2026-04-27T11:25:00.936Z</time></trkpt><trkpt lat="39.66303801689214" lon="8.473175838773216"><ele>129.0</ele><time>2026-04-27T11:25:01.936Z</time></trkpt><trkpt lat="39.66288636729101" lon="8.473238153983075"><ele>129.0</ele><time>2026-04-27T11:25:02.936Z</time></trkpt><trkpt lat="39.66273283259199" lon="8.473279295690478"><ele>129.0</ele><time>2026-04-27T11:25:03.936Z</time></trkpt><trkpt lat="39.66257776198596" lon="8.473341258997259"><ele>131.33333333333334</ele><time>2026-04-27T11:25:04.936Z</time></trkpt><trkpt lat="39.66241832633464" lon="8.473417555206614"><ele>133.66666666666669</ele><time>2026-04-27T11:25:05.936Z</time></trkpt><trkpt lat="39.662255367601595" lon="8.473496113764034"><ele>136.0</ele><time>2026-04-27T11:25:06.935Z</time></trkpt><trkpt lat="39.66209205070774" lon="8.473573223360248"><ele>136.33333333333334</ele><time>2026-04-27T11:25:07.934Z</time></trkpt><trkpt lat="39.66193026014008" lon="8.473652009653353"><ele>136.66666666666666</ele><time>2026-04-27T11:25:08.934Z</time></trkpt><trkpt lat="39.66177193242546" lon="8.47372736195879"><ele>137.0</ele><time>2026-04-27T11:25:09.935Z</time></trkpt><trkpt lat="39.66161117823333" lon="8.4738020871436"><ele>134.0</ele><time>2026-04-27T11:25:10.935Z</time></trkpt><trkpt lat="39.66145040942404" lon="8.473874594484457"><ele>131.0</ele><time>2026-04-27T11:25:11.935Z</time></trkpt><trkpt lat="39.661287380600825" lon="8.473954687184028"><ele>128.0</ele><time>2026-04-27T11:25:12.934Z</time></trkpt><trkpt lat="39.66112063127355" lon="8.474036411594835"><ele>126.0</ele><time>2026-04-27T11:25:13.935Z</time></trkpt><trkpt lat="39.66095020527904" lon="8.474118929777177"><ele>124.0</ele><time>2026-04-27T11:25:14.935Z</time></trkpt><trkpt lat="39.66078117954851" lon="8.474202028920063"><ele>122.0</ele><time>2026-04-27T11:25:15.934Z</time></trkpt><trkpt lat="39.66061211176499" lon="8.474284052365865"><ele>122.0</ele><time>2026-04-27T11:25:16.934Z</time></trkpt><trkpt lat="39.66044114053709" lon="8.474364510278678"><ele>122.0</ele><time>2026-04-27T11:25:17.935Z</time></trkpt><trkpt lat="39.66027032613872" lon="8.474443585585853"><ele>122.0</ele><time>2026-04-27T11:25:18.935Z</time></trkpt><trkpt lat="39.66009764284896" lon="8.474524251250443"><ele>122.66666666666666</ele><time>2026-04-27T11:25:19.934Z</time></trkpt><trkpt lat="39.65992572160327" lon="8.474608862116806"><ele>123.33333333333334</ele><time>2026-04-27T11:25:20.934Z</time></trkpt><trkpt lat="39.659753812335985" lon="8.474692634603791"><ele>124.0</ele><time>2026-04-27T11:25:21.934Z</time></trkpt><trkpt lat="39.65958238841804" lon="8.474777202025459"><ele>123.33333333333334</ele><time>2026-04-27T11:25:22.934Z</time></trkpt><trkpt lat="39.65940908014144" lon="8.474859148754177"><ele>122.66666666666666</ele><time>2026-04-27T11:25:23.934Z</time></trkpt><trkpt lat="39.65923546217175" lon="8.474941490021363"><ele>122.0</ele><time>2026-04-27T11:25:24.934Z</time></trkpt><trkpt lat="39.65905848014772" lon="8.475021491857236"><ele>122.0</ele><time>2026-04-27T11:25:25.934Z</time></trkpt><trkpt lat="39.658884261055036" lon="8.475101187176593"><ele>122.0</ele><time>2026-04-27T11:25:26.934Z</time></trkpt><trkpt lat="39.65871411008977" lon="8.475181318143655"><ele>122.0</ele><time>2026-04-27T11:25:27.934Z</time></trkpt><trkpt lat="39.658539946674495" lon="8.475265305251392"><ele>122.33333333333333</ele><time>2026-04-27T11:25:28.934Z</time></trkpt><trkpt lat="39.658368672641366" lon="8.475349095669943"><ele>122.66666666666666</ele><time>2026-04-27T11:25:29.934Z</time></trkpt><trkpt lat="39.658199553566725" lon="8.475430053389076"><ele>123.0</ele><time>2026-04-27T11:25:30.934Z</time></trkpt><trkpt lat="39.65803087818427" lon="8.475510142984035"><ele>123.0</ele><time>2026-04-27T11:25:31.934Z</time></trkpt><trkpt lat="39.657867098443035" lon="8.475589549355178"><ele>123.0</ele><time>2026-04-27T11:25:32.934Z</time></trkpt><trkpt lat="39.65770584630268" lon="8.47566759056695"><ele>123.0</ele><time>2026-04-27T11:25:33.934Z</time></trkpt><trkpt lat="39.6575427501832" lon="8.475745636236537"><ele>127.33333333333334</ele><time>2026-04-27T11:25:34.934Z</time></trkpt><trkpt lat="39.65738176013624" lon="8.475828568125268"><ele>131.66666666666669</ele><time>2026-04-27T11:25:35.934Z</time></trkpt><trkpt lat="39.657229453608366" lon="8.475923816794033"><ele>136.0</ele><time>2026-04-27T11:25:36.934Z</time></trkpt><trkpt lat="39.65707997299384" lon="8.476035444203967"><ele>134.33333333333334</ele><time>2026-04-27T11:25:37.934Z</time></trkpt><trkpt lat="39.65693483070801" lon="8.476156819238827"><ele>132.66666666666666</ele><time>2026-04-27T11:25:38.934Z</time></trkpt><trkpt lat="39.65679372656996" lon="8.476279008785527"><ele>131.0</ele><time>2026-04-27T11:25:39.934Z</time></trkpt><trkpt lat="39.656666823319426" lon="8.47638052629198"><ele>133.4</ele><time>2026-04-27T11:25:40.934Z</time></trkpt><trkpt lat="39.65656585440066" lon="8.476443653029458"><ele>135.8</ele><time>2026-04-27T11:25:41.934Z</time></trkpt><trkpt lat="39.65646497191241" lon="8.47648297525785"><ele>138.20000000000002</ele><time>2026-04-27T11:25:42.934Z</time></trkpt><trkpt lat="39.65637206412304" lon="8.476479786309941"><ele>140.6</ele><time>2026-04-27T11:25:43.934Z</time></trkpt><trkpt lat="39.65627376698651" lon="8.476442373341701"><ele>143.0</ele><time>2026-04-27T11:25:44.935Z</time></trkpt><trkpt lat="39.656176339468345" lon="8.476379672040284"><ele>141.75</ele><time>2026-04-27T11:25:45.935Z</time></trkpt><trkpt lat="39.656087581468334" lon="8.476270264866592"><ele>140.5</ele><time>2026-04-27T11:25:46.935Z</time></trkpt><trkpt lat="39.656026531067624" lon="8.476132910340981"><ele>139.25</ele><time>2026-04-27T11:25:47.935Z</time></trkpt><trkpt lat="39.655972835482935" lon="8.475971743750542"><ele>138.0</ele><time>2026-04-27T11:25:48.935Z</time></trkpt><trkpt lat="39.655907508875615" lon="8.475800685489478"><ele>138.0</ele><time>2026-04-27T11:25:49.935Z</time></trkpt><trkpt lat="39.65584528121337" lon="8.475640405832152"><ele>138.0</ele><time>2026-04-27T11:25:50.935Z</time></trkpt><trkpt lat="39.655778558241835" lon="8.475501823557718"><ele>138.0</ele><time>2026-04-27T11:25:51.935Z</time></trkpt><trkpt lat="39.65570876297695" lon="8.475403103834589"><ele>138.0</ele><time>2026-04-27T11:25:52.935Z</time></trkpt><trkpt lat="39.655617007013475" lon="8.475329164385654"><ele>136.20000000000002</ele><time>2026-04-27T11:25:53.935Z</time></trkpt><trkpt lat="39.65551271211868" lon="8.47528007341082"><ele>134.4</ele><time>2026-04-27T11:25:54.935Z</time></trkpt><trkpt lat="39.65541009616136" lon="8.475260847352944"><ele>132.60000000000002</ele><time>2026-04-27T11:25:55.935Z</time></trkpt><trkpt lat="39.65531337865555" lon="8.475291152313988"><ele>130.8</ele><time>2026-04-27T11:25:56.935Z</time></trkpt><trkpt lat="39.655195742610815" lon="8.475360525960543"><ele>129.0</ele><time>2026-04-27T11:25:57.935Z</time></trkpt><trkpt lat="39.65508835457814" lon="8.475428996247164"><ele>132.5</ele><time>2026-04-27T11:25:58.935Z</time></trkpt><trkpt lat="39.65497037985624" lon="8.475500473676874"><ele>136.0</ele><time>2026-04-27T11:25:59.935Z</time></trkpt><trkpt lat="39.65487126290357" lon="8.475567504626436"><ele>139.5</ele><time>2026-04-27T11:26:00.935Z</time></trkpt><trkpt lat="39.65477290093185" lon="8.4756383592591"><ele>143.0</ele><time>2026-04-27T11:26:01.935Z</time></trkpt><trkpt lat="39.65469120796202" lon="8.4757693785678"><ele>143.0</ele><time>2026-04-27T11:26:02.935Z</time></trkpt><trkpt lat="39.65463005190026" lon="8.475933836179001"><ele>143.0</ele><time>2026-04-27T11:26:03.935Z</time></trkpt><trkpt lat="39.654563664000236" lon="8.476076408389726"><ele>143.0</ele><time>2026-04-27T11:26:04.935Z</time></trkpt><trkpt lat="39.65448727803937" lon="8.476245845506025"><ele>143.0</ele><time>2026-04-27T11:26:05.935Z</time></trkpt><trkpt lat="39.65440164565805" lon="8.476409687651806"><ele>142.25</ele><time>2026-04-27T11:26:06.935Z</time></trkpt><trkpt lat="39.65433869965641" lon="8.476574831276094"><ele>141.5</ele><time>2026-04-27T11:26:07.935Z</time></trkpt><trkpt lat="39.654274005753926" lon="8.476746100105135"><ele>140.75</ele><time>2026-04-27T11:26:08.935Z</time></trkpt><trkpt lat="39.654244399723474" lon="8.476938502913946"><ele>140.0</ele><time>2026-04-27T11:26:09.935Z</time></trkpt><trkpt lat="39.65421494273842" lon="8.47714152930707"><ele>140.0</ele><time>2026-04-27T11:26:10.935Z</time></trkpt><trkpt lat="39.65418711319231" lon="8.477337345413888"><ele>140.0</ele><time>2026-04-27T11:26:11.935Z</time></trkpt><trkpt lat="39.654158180934836" lon="8.477537567400068"><ele>140.0</ele><time>2026-04-27T11:26:12.935Z</time></trkpt><trkpt lat="39.65412880194847" lon="8.477700340696648"><ele>140.0</ele><time>2026-04-27T11:26:13.935Z</time></trkpt><trkpt lat="39.654089787549616" lon="8.477856636345988"><ele>142.2</ele><time>2026-04-27T11:26:14.935Z</time></trkpt><trkpt lat="39.65404377137698" lon="8.477984966176766"><ele>144.4</ele><time>2026-04-27T11:26:15.935Z</time></trkpt><trkpt lat="39.65397729700559" lon="8.478087967640866"><ele>146.6</ele><time>2026-04-27T11:26:16.935Z</time></trkpt><trkpt lat="39.65390076230466" lon="8.478173157821649"><ele>148.8</ele><time>2026-04-27T11:26:17.935Z</time></trkpt><trkpt lat="39.65380886828553" lon="8.47821609146266"><ele>151.0</ele><time>2026-04-27T11:26:18.935Z</time></trkpt><trkpt lat="39.653718619038685" lon="8.478224835465015"><ele>151.0</ele><time>2026-04-27T11:26:19.935Z</time></trkpt><trkpt lat="39.653627475401834" lon="8.478194858056098"><ele>151.0</ele><time>2026-04-27T11:26:20.935Z</time></trkpt><trkpt lat="39.65353250232848" lon="8.478115181864586"><ele>151.0</ele><time>2026-04-27T11:26:21.935Z</time></trkpt><trkpt lat="39.65344890100461" lon="8.478017345121685"><ele>151.0</ele><time>2026-04-27T11:26:22.935Z</time></trkpt><trkpt lat="39.65338656322223" lon="8.4778926437081"><ele>151.0</ele><time>2026-04-27T11:26:23.935Z</time></trkpt><trkpt lat="39.65335349019845" lon="8.477757730014275"><ele>148.5</ele><time>2026-04-27T11:26:24.935Z</time></trkpt><trkpt lat="39.65333366642953" lon="8.477599138302244"><ele>146.0</ele><time>2026-04-27T11:26:25.935Z</time></trkpt><trkpt lat="39.653316212117744" lon="8.477435378407117"><ele>143.5</ele><time>2026-04-27T11:26:26.935Z</time></trkpt><trkpt lat="39.653284075311596" lon="8.477276835578776"><ele>141.0</ele><time>2026-04-27T11:26:27.935Z</time></trkpt><trkpt lat="39.653233317548185" lon="8.477124809224167"><ele>137.5</ele><time>2026-04-27T11:26:28.935Z</time></trkpt><trkpt lat="39.653163199962925" lon="8.476985592973909"><ele>134.0</ele><time>2026-04-27T11:26:29.935Z</time></trkpt><trkpt lat="39.65308018662449" lon="8.476859781115792"><ele>130.5</ele><time>2026-04-27T11:26:30.935Z</time></trkpt><trkpt lat="39.65298350628381" lon="8.476720078409253"><ele>127.0</ele><time>2026-04-27T11:26:31.935Z</time></trkpt><trkpt lat="39.65287041126865" lon="8.476584500379724"><ele>130.5</ele><time>2026-04-27T11:26:32.935Z</time></trkpt><trkpt lat="39.65276628834866" lon="8.476476564403914"><ele>134.0</ele><time>2026-04-27T11:26:33.935Z</time></trkpt><trkpt lat="39.65265621469873" lon="8.476404466990392"><ele>137.5</ele><time>2026-04-27T11:26:34.935Z</time></trkpt><trkpt lat="39.652548196482265" lon="8.476362329061157"><ele>141.0</ele><time>2026-04-27T11:26:35.935Z</time></trkpt><trkpt lat="39.65244444113814" lon="8.476360778495469"><ele>141.0</ele><time>2026-04-27T11:26:36.935Z</time></trkpt><trkpt lat="39.65233851653406" lon="8.47639751681423"><ele>141.0</ele><time>2026-04-27T11:26:37.935Z</time></trkpt><trkpt lat="39.652235094959494" lon="8.47646057754011"><ele>141.0</ele><time>2026-04-27T11:26:38.935Z</time></trkpt><trkpt lat="39.65214602757887" lon="8.476548052304022"><ele>141.0</ele><time>2026-04-27T11:26:39.935Z</time></trkpt><trkpt lat="39.65206393948061" lon="8.476665472844418"><ele>141.0</ele><time>2026-04-27T11:26:40.935Z</time></trkpt><trkpt lat="39.651996838416245" lon="8.47680412735543"><ele>141.0</ele><time>2026-04-27T11:26:41.936Z</time></trkpt><trkpt lat="39.65194012201675" lon="8.476961998179867"><ele>141.0</ele><time>2026-04-27T11:26:42.936Z</time></trkpt><trkpt lat="39.651899066001214" lon="8.477136116643026"><ele>141.0</ele><time>2026-04-27T11:26:43.936Z</time></trkpt><trkpt lat="39.65186491604022" lon="8.477295512469553"><ele>141.0</ele><time>2026-04-27T11:26:44.936Z</time></trkpt><trkpt lat="39.6518255116413" lon="8.477411866325665"><ele>141.0</ele><time>2026-04-27T11:26:45.936Z</time></trkpt><trkpt lat="39.65177143956925" lon="8.477483915919318"><ele>141.0</ele><time>2026-04-27T11:26:46.936Z</time></trkpt><trkpt lat="39.65170537591753" lon="8.477527275089908"><ele>141.0</ele><time>2026-04-27T11:26:47.936Z</time></trkpt><trkpt lat="39.65160742455582" lon="8.477535821980863"><ele>141.0</ele><time>2026-04-27T11:26:48.936Z</time></trkpt><trkpt lat="39.651506650648564" lon="8.477500200685911"><ele>141.0</ele><time>2026-04-27T11:26:49.936Z</time></trkpt><trkpt lat="39.65141794366994" lon="8.477422279512203"><ele>141.0</ele><time>2026-04-27T11:26:50.936Z</time></trkpt><trkpt lat="39.65134183135832" lon="8.47731660827953"><ele>141.0</ele><time>2026-04-27T11:26:51.936Z</time></trkpt><trkpt lat="39.65129352414548" lon="8.477189659674515"><ele>141.0</ele><time>2026-04-27T11:26:52.936Z</time></trkpt><trkpt lat="39.651272712887284" lon="8.477046395167642"><ele>141.0</ele><time>2026-04-27T11:26:53.936Z</time></trkpt><trkpt lat="39.65126774561532" lon="8.476879772614673"><ele>138.75</ele><time>2026-04-27T11:26:54.936Z</time></trkpt><trkpt lat="39.65127332356194" lon="8.476696444680226"><ele>136.5</ele><time>2026-04-27T11:26:55.936Z</time></trkpt><trkpt lat="39.651274858841575" lon="8.476511663410157"><ele>134.25</ele><time>2026-04-27T11:26:56.936Z</time></trkpt><trkpt lat="39.65127990939849" lon="8.476314396407068"><ele>132.0</ele><time>2026-04-27T11:26:57.936Z</time></trkpt><trkpt lat="39.65129360263412" lon="8.476126703463713"><ele>131.5</ele><time>2026-04-27T11:26:58.936Z</time></trkpt><trkpt lat="39.65132794186167" lon="8.475953178195255"><ele>131.0</ele><time>2026-04-27T11:26:59.936Z</time></trkpt><trkpt lat="39.651378264482446" lon="8.475779266025956"><ele>130.5</ele><time>2026-04-27T11:27:00.936Z</time></trkpt><trkpt lat="39.65144279591783" lon="8.475603831647549"><ele>130.0</ele><time>2026-04-27T11:27:01.936Z</time></trkpt><trkpt lat="39.651497372002744" lon="8.475449412009603"><ele>130.4</ele><time>2026-04-27T11:27:02.936Z</time></trkpt><trkpt lat="39.65154164243292" lon="8.47530679303647"><ele>130.8</ele><time>2026-04-27T11:27:03.936Z</time></trkpt><trkpt lat="39.65155783340318" lon="8.475175546240797"><ele>131.2</ele><time>2026-04-27T11:27:04.936Z</time></trkpt><trkpt lat="39.65154622772192" lon="8.475059696825163"><ele>131.6</ele><time>2026-04-27T11:27:05.936Z</time></trkpt><trkpt lat="39.651501805766365" lon="8.474949736458441"><ele>132.0</ele><time>2026-04-27T11:27:06.936Z</time></trkpt><trkpt lat="39.65143564135555" lon="8.47485468456867"><ele>132.0</ele><time>2026-04-27T11:27:07.936Z</time></trkpt><trkpt lat="39.65134177932583" lon="8.474800243758832"><ele>132.0</ele><time>2026-04-27T11:27:08.936Z</time></trkpt><trkpt lat="39.65124438770718" lon="8.474781911206522"><ele>132.0</ele><time>2026-04-27T11:27:09.936Z</time></trkpt><trkpt lat="39.65113202112874" lon="8.474790209399226"><ele>132.0</ele><time>2026-04-27T11:27:10.936Z</time></trkpt><trkpt lat="39.65101182379187" lon="8.474823585204954"><ele>132.0</ele><time>2026-04-27T11:27:11.936Z</time></trkpt><trkpt lat="39.650891387643995" lon="8.474881472912857"><ele>131.25</ele><time>2026-04-27T11:27:12.935Z</time></trkpt><trkpt lat="39.650764132044245" lon="8.474954334461643"><ele>130.5</ele><time>2026-04-27T11:27:13.936Z</time></trkpt><trkpt lat="39.65063643700763" lon="8.475030302579727"><ele>129.75</ele><time>2026-04-27T11:27:14.936Z</time></trkpt><trkpt lat="39.65051299667613" lon="8.475097743707291"><ele>129.0</ele><time>2026-04-27T11:27:15.936Z</time></trkpt><trkpt lat="39.650390115061874" lon="8.47513715098534"><ele>127.0</ele><time>2026-04-27T11:27:16.935Z</time></trkpt><trkpt lat="39.65025254324891" lon="8.475146069744953"><ele>125.0</ele><time>2026-04-27T11:27:17.935Z</time></trkpt><trkpt lat="39.650106670936424" lon="8.475117922132139"><ele>123.0</ele><time>2026-04-27T11:27:18.935Z</time></trkpt><trkpt lat="39.64995831529462" lon="8.475067871631195"><ele>121.0</ele><time>2026-04-27T11:27:19.936Z</time></trkpt><trkpt lat="39.64980508909769" lon="8.475007732184249"><ele>121.0</ele><time>2026-04-27T11:27:20.936Z</time></trkpt><trkpt lat="39.64965372215752" lon="8.474952458133087"><ele>121.0</ele><time>2026-04-27T11:27:21.935Z</time></trkpt><trkpt lat="39.64949479905768" lon="8.47490075859253"><ele>121.0</ele><time>2026-04-27T11:27:22.935Z</time></trkpt><trkpt lat="39.64935909186593" lon="8.474868124784473"><ele>119.6</ele><time>2026-04-27T11:27:23.935Z</time></trkpt><trkpt lat="39.64924607960306" lon="8.474858804607827"><ele>118.19999999999999</ele><time>2026-04-27T11:27:24.936Z</time></trkpt><trkpt lat="39.649148054866316" lon="8.474879908854756"><ele>116.80000000000001</ele><time>2026-04-27T11:27:25.936Z</time></trkpt><trkpt lat="39.64906018939404" lon="8.4749295019481"><ele>115.4</ele><time>2026-04-27T11:27:26.936Z</time></trkpt><trkpt lat="39.64898491580686" lon="8.474995881954486"><ele>114.0</ele><time>2026-04-27T11:27:27.936Z</time></trkpt><trkpt lat="39.648953240402385" lon="8.47512426308302"><ele>114.0</ele><time>2026-04-27T11:27:28.936Z</time></trkpt><trkpt lat="39.648928041201884" lon="8.475248930734022"><ele>114.0</ele><time>2026-04-27T11:27:29.936Z</time></trkpt><trkpt lat="39.64891067786238" lon="8.475398105557913"><ele>114.0</ele><time>2026-04-27T11:27:30.936Z</time></trkpt><trkpt lat="39.648869230058864" lon="8.47555186869084"><ele>114.0</ele><time>2026-04-27T11:27:31.936Z</time></trkpt><trkpt lat="39.64885135886957" lon="8.475676395176288"><ele>114.0</ele><time>2026-04-27T11:27:32.936Z</time></trkpt><trkpt lat="39.64878801251586" lon="8.475772343431524"><ele>111.5</ele><time>2026-04-27T11:27:33.936Z</time></trkpt><trkpt lat="39.64869021475663" lon="8.475843901739607"><ele>109.0</ele><time>2026-04-27T11:27:34.936Z</time></trkpt><trkpt lat="39.64858310662007" lon="8.475900713708123"><ele>106.5</ele><time>2026-04-27T11:27:35.936Z</time></trkpt><trkpt lat="39.64845686727235" lon="8.47594314266054"><ele>104.0</ele><time>2026-04-27T11:27:36.936Z</time></trkpt><trkpt lat="39.64831928533245" lon="8.47594630248157"><ele>104.0</ele><time>2026-04-27T11:27:37.936Z</time></trkpt><trkpt lat="39.648193658833634" lon="8.475972813527767"><ele>104.0</ele><time>2026-04-27T11:27:38.936Z</time></trkpt><trkpt lat="39.64804146161248" lon="8.475981425118004"><ele>104.0</ele><time>2026-04-27T11:27:39.936Z</time></trkpt><trkpt lat="39.64788185204032" lon="8.476010876025729"><ele>104.0</ele><time>2026-04-27T11:27:40.936Z</time></trkpt><trkpt lat="39.647729467761295" lon="8.476040860241156"><ele>101.25</ele><time>2026-04-27T11:27:41.936Z</time></trkpt><trkpt lat="39.64758434769165" lon="8.476065797031968"><ele>98.5</ele><time>2026-04-27T11:27:42.936Z</time></trkpt><trkpt lat="39.647462567001774" lon="8.476086146423329"><ele>95.75</ele><time>2026-04-27T11:27:43.936Z</time></trkpt><trkpt lat="39.647352887586536" lon="8.476089744481268"><ele>93.0</ele><time>2026-04-27T11:27:44.936Z</time></trkpt><trkpt lat="39.647246436701174" lon="8.476067908174063"><ele>93.0</ele><time>2026-04-27T11:27:45.936Z</time></trkpt><trkpt lat="39.647145102634184" lon="8.47602822731494"><ele>93.0</ele><time>2026-04-27T11:27:46.936Z</time></trkpt><trkpt lat="39.64705733822474" lon="8.47596535790779"><ele>93.0</ele><time>2026-04-27T11:27:47.936Z</time></trkpt><trkpt lat="39.64697229906921" lon="8.475875114294134"><ele>93.0</ele><time>2026-04-27T11:27:48.936Z</time></trkpt><trkpt lat="39.64686782375421" lon="8.475742452018505"><ele>93.66666666666667</ele><time>2026-04-27T11:27:49.936Z</time></trkpt><trkpt lat="39.64679832516605" lon="8.475580053619852"><ele>94.33333333333334</ele><time>2026-04-27T11:27:50.936Z</time></trkpt><trkpt lat="39.646708016870434" lon="8.47540974576762"><ele>95.0</ele><time>2026-04-27T11:27:51.936Z</time></trkpt><trkpt lat="39.64662358449895" lon="8.475246896325682"><ele>95.75</ele><time>2026-04-27T11:27:52.936Z</time></trkpt><trkpt lat="39.64654500159288" lon="8.475092801207577"><ele>96.5</ele><time>2026-04-27T11:27:53.936Z</time></trkpt><trkpt lat="39.6464705132154" lon="8.474966314251038"><ele>97.25</ele><time>2026-04-27T11:27:54.936Z</time></trkpt><trkpt lat="39.64637892931923" lon="8.47483766912785"><ele>98.0</ele><time>2026-04-27T11:27:55.936Z</time></trkpt><trkpt lat="39.64626590896476" lon="8.474734494699629"><ele>98.33333333333333</ele><time>2026-04-27T11:27:56.936Z</time></trkpt><trkpt lat="39.6461259840619" lon="8.4746661033827"><ele>98.66666666666666</ele><time>2026-04-27T11:27:57.936Z</time></trkpt><trkpt lat="39.645976368920444" lon="8.474628362525248"><ele>99.0</ele><time>2026-04-27T11:27:58.936Z</time></trkpt><trkpt lat="39.64581369098509" lon="8.474609284814743"><ele>102.5</ele><time>2026-04-27T11:27:59.936Z</time></trkpt><trkpt lat="39.645711777520944" lon="8.474563117545737"><ele>106.0</ele><time>2026-04-27T11:28:00.936Z</time></trkpt><trkpt lat="39.64555363945266" lon="8.47452904033003"><ele>109.5</ele><time>2026-04-27T11:28:01.937Z</time></trkpt><trkpt lat="39.645391250720245" lon="8.474495595920214"><ele>113.0</ele><time>2026-04-27T11:28:02.937Z</time></trkpt><trkpt lat="39.64522893187663" lon="8.474459729282035"><ele>114.33333333333333</ele><time>2026-04-27T11:28:03.937Z</time></trkpt><trkpt lat="39.64506461453792" lon="8.474422858727976"><ele>115.66666666666666</ele><time>2026-04-27T11:28:04.937Z</time></trkpt><trkpt lat="39.64490387222862" lon="8.474380090944404"><ele>117.0</ele><time>2026-04-27T11:28:05.937Z</time></trkpt><trkpt lat="39.644749264867166" lon="8.474333828833801"><ele>117.0</ele><time>2026-04-27T11:28:06.937Z</time></trkpt><trkpt lat="39.64462580444129" lon="8.47423993372981"><ele>117.0</ele><time>2026-04-27T11:28:07.937Z</time></trkpt><trkpt lat="39.64451012948809" lon="8.474137315224425"><ele>117.0</ele><time>2026-04-27T11:28:08.937Z</time></trkpt><trkpt lat="39.64439338120976" lon="8.474045480941475"><ele>117.0</ele><time>2026-04-27T11:28:09.937Z</time></trkpt><trkpt lat="39.64428212627601" lon="8.473980100819166"><ele>117.25</ele><time>2026-04-27T11:28:10.937Z</time></trkpt><trkpt lat="39.64416380528067" lon="8.473992181604691"><ele>117.5</ele><time>2026-04-27T11:28:11.937Z</time></trkpt><trkpt lat="39.64405131954155" lon="8.47401544535337"><ele>117.75</ele><time>2026-04-27T11:28:12.937Z</time></trkpt><trkpt lat="39.6439312535168" lon="8.474062748526666"><ele>118.0</ele><time>2026-04-27T11:28:13.937Z</time></trkpt><trkpt lat="39.64381179599195" lon="8.474135638949797"><ele>118.0</ele><time>2026-04-27T11:28:14.937Z</time></trkpt><trkpt lat="39.643687094417494" lon="8.474222579151347"><ele>118.0</ele><time>2026-04-27T11:28:15.937Z</time></trkpt><trkpt lat="39.64356388796909" lon="8.474287838340368"><ele>118.0</ele><time>2026-04-27T11:28:16.937Z</time></trkpt><trkpt lat="39.64345028684247" lon="8.474311802958558"><ele>118.0</ele><time>2026-04-27T11:28:17.937Z</time></trkpt><trkpt lat="39.64334466707556" lon="8.474279448317631"><ele>120.75</ele><time>2026-04-27T11:28:18.937Z</time></trkpt><trkpt lat="39.64323260631042" lon="8.474246881931217"><ele>123.5</ele><time>2026-04-27T11:28:19.937Z</time></trkpt><trkpt lat="39.64310675130296" lon="8.474227890967732"><ele>126.25</ele><time>2026-04-27T11:28:20.937Z</time></trkpt><trkpt lat="39.64297453345324" lon="8.474194625738798"><ele>129.0</ele><time>2026-04-27T11:28:21.937Z</time></trkpt><trkpt lat="39.64283843698985" lon="8.474201520083538"><ele>130.66666666666666</ele><time>2026-04-27T11:28:22.937Z</time></trkpt><trkpt lat="39.64269353792141" lon="8.474246657025393"><ele>132.33333333333331</ele><time>2026-04-27T11:28:23.937Z</time></trkpt><trkpt lat="39.64255577812079" lon="8.474310571587907"><ele>134.0</ele><time>2026-04-27T11:28:24.937Z</time></trkpt><trkpt lat="39.64240794254031" lon="8.474374418658124"><ele>134.0</ele><time>2026-04-27T11:28:25.937Z</time></trkpt><trkpt lat="39.64226472382055" lon="8.474402356893643"><ele>134.0</ele><time>2026-04-27T11:28:26.937Z</time></trkpt><trkpt lat="39.64211537471822" lon="8.474401406753067"><ele>134.0</ele><time>2026-04-27T11:28:27.937Z</time></trkpt><trkpt lat="39.64196294113595" lon="8.474386032092127"><ele>134.0</ele><time>2026-04-27T11:28:28.937Z</time></trkpt><trkpt lat="39.64179778540438" lon="8.47437544675763"><ele>135.66666666666666</ele><time>2026-04-27T11:28:29.937Z</time></trkpt><trkpt lat="39.6416154723582" lon="8.474363668642011"><ele>137.33333333333334</ele><time>2026-04-27T11:28:30.937Z</time></trkpt><trkpt lat="39.64143814014424" lon="8.474357416332648"><ele>139.0</ele><time>2026-04-27T11:28:31.937Z</time></trkpt><trkpt lat="39.64126586407814" lon="8.474355452952452"><ele>138.75</ele><time>2026-04-27T11:28:32.937Z</time></trkpt><trkpt lat="39.64110258995731" lon="8.474350990006297"><ele>138.5</ele><time>2026-04-27T11:28:33.937Z</time></trkpt><trkpt lat="39.64095993974851" lon="8.474359993152106"><ele>138.25</ele><time>2026-04-27T11:28:34.937Z</time></trkpt><trkpt lat="39.640828661715695" lon="8.474386445326914"><ele>138.0</ele><time>2026-04-27T11:28:35.937Z</time></trkpt><trkpt lat="39.64069268842356" lon="8.474417870812266"><ele>138.0</ele><time>2026-04-27T11:28:36.937Z</time></trkpt><trkpt lat="39.64056104850285" lon="8.474497653985944"><ele>138.0</ele><time>2026-04-27T11:28:37.937Z</time></trkpt><trkpt lat="39.64044487017689" lon="8.474603379234495"><ele>138.0</ele><time>2026-04-27T11:28:38.937Z</time></trkpt><trkpt lat="39.64033960800647" lon="8.474746582502956"><ele>138.0</ele><time>2026-04-27T11:28:39.937Z</time></trkpt><trkpt lat="39.64024244428373" lon="8.474897268244263"><ele>140.0</ele><time>2026-04-27T11:28:40.937Z</time></trkpt><trkpt lat="39.640145422564345" lon="8.475061501498992"><ele>142.0</ele><time>2026-04-27T11:28:41.937Z</time></trkpt><trkpt lat="39.64004439488979" lon="8.475236425817481"><ele>144.0</ele><time>2026-04-27T11:28:42.937Z</time></trkpt><trkpt lat="39.63994044740204" lon="8.475416405644237"><ele>145.33333333333334</ele><time>2026-04-27T11:28:43.937Z</time></trkpt><trkpt lat="39.639837267333384" lon="8.4755945513591"><ele>146.66666666666669</ele><time>2026-04-27T11:28:44.937Z</time></trkpt><trkpt lat="39.6397379794598" lon="8.475762396878574"><ele>148.0</ele><time>2026-04-27T11:28:45.937Z</time></trkpt><trkpt lat="39.63964047542181" lon="8.475927226826808"><ele>148.0</ele><time>2026-04-27T11:28:46.937Z</time></trkpt><trkpt lat="39.6395465573703" lon="8.476093128463758"><ele>148.0</ele><time>2026-04-27T11:28:47.937Z</time></trkpt><trkpt lat="39.63946603359027" lon="8.47622007286282"><ele>148.0</ele><time>2026-04-27T11:28:48.937Z</time></trkpt><trkpt lat="39.639380610869765" lon="8.476348547851208"><ele>148.0</ele><time>2026-04-27T11:28:49.937Z</time></trkpt><trkpt lat="39.6392775350236" lon="8.476416489660133"><ele>148.25</ele><time>2026-04-27T11:28:50.937Z</time></trkpt><trkpt lat="39.63914970031399" lon="8.476453195633267"><ele>148.5</ele><time>2026-04-27T11:28:51.937Z</time></trkpt><trkpt lat="39.63901469296566" lon="8.476439608856287"><ele>148.75</ele><time>2026-04-27T11:28:52.937Z</time></trkpt><trkpt lat="39.638884059207726" lon="8.476433576792006"><ele>149.0</ele><time>2026-04-27T11:28:53.937Z</time></trkpt><trkpt lat="39.63873443243179" lon="8.476449194080345"><ele>149.5</ele><time>2026-04-27T11:28:54.937Z</time></trkpt><trkpt lat="39.63859501288718" lon="8.476461846694207"><ele>150.0</ele><time>2026-04-27T11:28:55.937Z</time></trkpt><trkpt lat="39.63846065441445" lon="8.476506621873346"><ele>150.5</ele><time>2026-04-27T11:28:56.937Z</time></trkpt><trkpt lat="39.63832962418225" lon="8.476590255869539"><ele>151.0</ele><time>2026-04-27T11:28:57.937Z</time></trkpt><trkpt lat="39.638201884730364" lon="8.476691642524573"><ele>151.0</ele><time>2026-04-27T11:28:58.938Z</time></trkpt><trkpt lat="39.63806891824041" lon="8.47680107996562"><ele>151.0</ele><time>2026-04-27T11:28:59.938Z</time></trkpt><trkpt lat="39.63792944333795" lon="8.476916940383187"><ele>151.0</ele><time>2026-04-27T11:29:00.938Z</time></trkpt><trkpt lat="39.63777885754916" lon="8.477038387895501"><ele>151.66666666666669</ele><time>2026-04-27T11:29:01.938Z</time></trkpt><trkpt lat="39.63762603193682" lon="8.477162345540979"><ele>152.33333333333334</ele><time>2026-04-27T11:29:02.938Z</time></trkpt><trkpt lat="39.637481314786804" lon="8.477277385656064"><ele>153.0</ele><time>2026-04-27T11:29:03.938Z</time></trkpt><trkpt lat="39.637339962974586" lon="8.477390572975462"><ele>153.0</ele><time>2026-04-27T11:29:04.938Z</time></trkpt><trkpt lat="39.63719971810435" lon="8.477503184297294"><ele>153.0</ele><time>2026-04-27T11:29:05.938Z</time></trkpt><trkpt lat="39.63705940449442" lon="8.47762133068714"><ele>153.0</ele><time>2026-04-27T11:29:06.938Z</time></trkpt><trkpt lat="39.6369225095806" lon="8.477734153065667"><ele>153.66666666666666</ele><time>2026-04-27T11:29:07.938Z</time></trkpt><trkpt lat="39.63678934388585" lon="8.477853965538078"><ele>154.33333333333331</ele><time>2026-04-27T11:29:08.938Z</time></trkpt><trkpt lat="39.636661565121045" lon="8.477954271539666"><ele>155.0</ele><time>2026-04-27T11:29:09.938Z</time></trkpt><trkpt lat="39.6365511756556" lon="8.47809534941239"><ele>155.0</ele><time>2026-04-27T11:29:10.938Z</time></trkpt><trkpt lat="39.63644551071797" lon="8.478254341422964"><ele>155.0</ele><time>2026-04-27T11:29:11.938Z</time></trkpt><trkpt lat="39.63635781434745" lon="8.478438519904092"><ele>155.0</ele><time>2026-04-27T11:29:12.938Z</time></trkpt><trkpt lat="39.63626414193557" lon="8.47861031465384"><ele>155.0</ele><time>2026-04-27T11:29:13.938Z</time></trkpt><trkpt lat="39.636182758961716" lon="8.47874397114882"><ele>155.0</ele><time>2026-04-27T11:29:14.938Z</time></trkpt><trkpt lat="39.63610963563853" lon="8.478870578652073"><ele>155.0</ele><time>2026-04-27T11:29:15.938Z</time></trkpt><trkpt lat="39.63603758210307" lon="8.478986109362337"><ele>155.0</ele><time>2026-04-27T11:29:16.938Z</time></trkpt><trkpt lat="39.635967452387256" lon="8.479080648492138"><ele>153.83333333333331</ele><time>2026-04-27T11:29:17.938Z</time></trkpt><trkpt lat="39.635898987041585" lon="8.479147913059998"><ele>152.66666666666666</ele><time>2026-04-27T11:29:18.937Z</time></trkpt><trkpt lat="39.63583960426186" lon="8.47918793042584"><ele>151.5</ele><time>2026-04-27T11:29:19.936Z</time></trkpt><trkpt lat="39.63576494686256" lon="8.479237896006175"><ele>150.33333333333334</ele><time>2026-04-27T11:29:21.937Z</time></trkpt><trkpt lat="39.63570938919232" lon="8.47928400162926"><ele>149.16666666666669</ele><time>2026-04-27T11:30:53.939Z</time></trkpt><trkpt lat="39.63571536966102" lon="8.479428765087164"><ele>148.0</ele><time>2026-04-27T11:30:55.939Z</time></trkpt><trkpt lat="39.63564674252043" lon="8.479531859986276"><ele>148.0</ele><time>2026-04-27T11:30:57.939Z</time></trkpt><trkpt lat="39.635526473028534" lon="8.479552173067178"><ele>148.0</ele><time>2026-04-27T11:30:59.939Z</time></trkpt><trkpt lat="39.635461214174434" lon="8.479570378672266"><ele>148.0</ele><time>2026-04-27T11:31:00.939Z</time></trkpt><trkpt lat="39.63535285365932" lon="8.479642739581767"><ele>148.0</ele><time>2026-04-27T11:31:02.939Z</time></trkpt><trkpt lat="39.63530022905627" lon="8.479693411462492"><ele>148.0</ele><time>2026-04-27T11:31:03.939Z</time></trkpt><trkpt lat="39.63523251863712" lon="8.47974029220845"><ele>148.57142857142858</ele><time>2026-04-27T11:31:04.939Z</time></trkpt><trkpt lat="39.635180404304904" lon="8.479794232075713"><ele>149.14285714285714</ele><time>2026-04-27T11:31:05.939Z</time></trkpt><trkpt lat="39.635126588541276" lon="8.479849932975386"><ele>149.71428571428572</ele><time>2026-04-27T11:31:06.939Z</time></trkpt><trkpt lat="39.63506861938952" lon="8.479906916383769"><ele>150.28571428571428</ele><time>2026-04-27T11:31:07.939Z</time></trkpt><trkpt lat="39.63500677723252" lon="8.479961819303774"><ele>150.85714285714286</ele><time>2026-04-27T11:31:08.939Z</time></trkpt><trkpt lat="39.634940810870816" lon="8.480010872733745"><ele>151.42857142857142</ele><time>2026-04-27T11:31:09.939Z</time></trkpt><trkpt lat="39.634869133705635" lon="8.480064302917416"><ele>152.0</ele><time>2026-04-27T11:31:10.939Z</time></trkpt><trkpt lat="39.63480387327004" lon="8.48014164929504"><ele>152.0</ele><time>2026-04-27T11:31:11.939Z</time></trkpt><trkpt lat="39.6347333122383" lon="8.480195205436493"><ele>152.0</ele><time>2026-04-27T11:31:12.939Z</time></trkpt><trkpt lat="39.63466346228974" lon="8.480248437016016"><ele>152.0</ele><time>2026-04-27T11:31:13.939Z</time></trkpt><trkpt lat="39.634605312260014" lon="8.480310966564833"><ele>152.0</ele><time>2026-04-27T11:31:14.939Z</time></trkpt><trkpt lat="39.63455506607135" lon="8.480374119866564"><ele>152.0</ele><time>2026-04-27T11:31:15.939Z</time></trkpt><trkpt lat="39.63451421769566" lon="8.48043938047518"><ele>152.0</ele><time>2026-04-27T11:31:16.939Z</time></trkpt><trkpt lat="39.6344939104998" lon="8.48060562702503"><ele>150.66666666666666</ele><time>2026-04-27T11:31:18.939Z</time></trkpt><trkpt lat="39.63447650789182" lon="8.48070261332433"><ele>149.33333333333331</ele><time>2026-04-27T11:31:19.939Z</time></trkpt><trkpt lat="39.63444345434422" lon="8.480800132644545"><ele>148.0</ele><time>2026-04-27T11:31:20.939Z</time></trkpt><trkpt lat="39.63439848197951" lon="8.480902063068607"><ele>146.66666666666666</ele><time>2026-04-27T11:31:21.939Z</time></trkpt><trkpt lat="39.63434760124288" lon="8.481014909910671"><ele>145.33333333333334</ele><time>2026-04-27T11:31:22.939Z</time></trkpt><trkpt lat="39.634305436793234" lon="8.481109839591586"><ele>144.0</ele><time>2026-04-27T11:31:23.939Z</time></trkpt><trkpt lat="39.634255611833666" lon="8.481203275778931"><ele>145.4</ele><time>2026-04-27T11:31:24.938Z</time></trkpt><trkpt lat="39.634205373529355" lon="8.481290208074332"><ele>146.8</ele><time>2026-04-27T11:31:25.938Z</time></trkpt><trkpt lat="39.63414465046704" lon="8.481394797722654"><ele>148.2</ele><time>2026-04-27T11:31:26.938Z</time></trkpt><trkpt lat="39.63409256489038" lon="8.48149358776104"><ele>149.6</ele><time>2026-04-27T11:31:27.938Z</time></trkpt><trkpt lat="39.63404854903201" lon="8.481595929678058"><ele>151.0</ele><time>2026-04-27T11:31:28.938Z</time></trkpt><trkpt lat="39.63400360274384" lon="8.481703495866263"><ele>151.0</ele><time>2026-04-27T11:31:29.938Z</time></trkpt><trkpt lat="39.633953454967184" lon="8.481806270292498"><ele>151.0</ele><time>2026-04-27T11:31:30.938Z</time></trkpt><trkpt lat="39.63389748121366" lon="8.481898845630958"><ele>151.0</ele><time>2026-04-27T11:31:31.938Z</time></trkpt><trkpt lat="39.63382818256125" lon="8.481994201172785"><ele>151.0</ele><time>2026-04-27T11:31:32.938Z</time></trkpt><trkpt lat="39.633749997858075" lon="8.482077067215313"><ele>151.0</ele><time>2026-04-27T11:31:33.938Z</time></trkpt><trkpt lat="39.633670481098164" lon="8.482144572886043"><ele>152.6</ele><time>2026-04-27T11:31:34.938Z</time></trkpt><trkpt lat="39.63359276863531" lon="8.482200047941465"><ele>154.2</ele><time>2026-04-27T11:31:35.938Z</time></trkpt><trkpt lat="39.63350626228364" lon="8.482206117406038"><ele>155.8</ele><time>2026-04-27T11:31:36.938Z</time></trkpt><trkpt lat="39.63343357356345" lon="8.482247291265114"><ele>157.4</ele><time>2026-04-27T11:31:37.938Z</time></trkpt><trkpt lat="39.63337024296102" lon="8.482394897779368"><ele>159.0</ele><time>2026-04-27T11:31:39.938Z</time></trkpt><trkpt lat="39.633332308409585" lon="8.482480638027951"><ele>159.0</ele><time>2026-04-27T11:31:40.938Z</time></trkpt><trkpt lat="39.63330003620607" lon="8.48258133918926"><ele>159.0</ele><time>2026-04-27T11:31:41.938Z</time></trkpt><trkpt lat="39.63326241839024" lon="8.48269424402769"><ele>159.0</ele><time>2026-04-27T11:31:42.938Z</time></trkpt><trkpt lat="39.63322958568262" lon="8.48281405663552"><ele>159.0</ele><time>2026-04-27T11:31:43.938Z</time></trkpt><trkpt lat="39.63321230617443" lon="8.482937129646636"><ele>159.0</ele><time>2026-04-27T11:31:44.938Z</time></trkpt><trkpt lat="39.633205274575076" lon="8.483071272594348"><ele>158.2</ele><time>2026-04-27T11:31:45.938Z</time></trkpt><trkpt lat="39.633219162541856" lon="8.483207211384169"><ele>157.4</ele><time>2026-04-27T11:31:46.938Z</time></trkpt><trkpt lat="39.63324728553084" lon="8.483344659250047"><ele>156.6</ele><time>2026-04-27T11:31:47.938Z</time></trkpt><trkpt lat="39.633275056893055" lon="8.48348301229261"><ele>155.8</ele><time>2026-04-27T11:31:48.938Z</time></trkpt><trkpt lat="39.633309324747884" lon="8.483622666719489"><ele>155.0</ele><time>2026-04-27T11:31:49.938Z</time></trkpt><trkpt lat="39.63335825766855" lon="8.483748767015133"><ele>155.66666666666666</ele><time>2026-04-27T11:31:50.938Z</time></trkpt><trkpt lat="39.63338572964593" lon="8.48387997418618"><ele>156.33333333333331</ele><time>2026-04-27T11:31:51.938Z</time></trkpt><trkpt lat="39.6334255034284" lon="8.483989179502343"><ele>157.0</ele><time>2026-04-27T11:31:52.938Z</time></trkpt><trkpt lat="39.63346134187286" lon="8.484095091715368"><ele>157.66666666666666</ele><time>2026-04-27T11:31:53.938Z</time></trkpt><trkpt lat="39.63348406998796" lon="8.484175651012253"><ele>158.33333333333334</ele><time>2026-04-27T11:31:54.938Z</time></trkpt><trkpt lat="39.633507769704366" lon="8.484278892652744"><ele>159.0</ele><time>2026-04-27T11:31:55.938Z</time></trkpt><trkpt lat="39.63352814756123" lon="8.484374610212626"><ele>159.0</ele><time>2026-04-27T11:31:56.938Z</time></trkpt><trkpt lat="39.63353452018197" lon="8.484525531509895"><ele>159.0</ele><time>2026-04-27T11:31:58.938Z</time></trkpt><trkpt lat="39.63354555319943" lon="8.484632989395196"><ele>159.0</ele><time>2026-04-27T11:31:59.938Z</time></trkpt><trkpt lat="39.633556858028975" lon="8.484746810854718"><ele>159.0</ele><time>2026-04-27T11:32:00.938Z</time></trkpt><trkpt lat="39.63357461849045" lon="8.4848795832554"><ele>159.0</ele><time>2026-04-27T11:32:01.938Z</time></trkpt><trkpt lat="39.63358640018187" lon="8.48500682290926"><ele>160.0</ele><time>2026-04-27T11:32:02.938Z</time></trkpt><trkpt lat="39.63360280993735" lon="8.485143904053679"><ele>161.0</ele><time>2026-04-27T11:32:03.938Z</time></trkpt><trkpt lat="39.63362362424204" lon="8.485286165929717"><ele>162.0</ele><time>2026-04-27T11:32:04.938Z</time></trkpt><trkpt lat="39.63364703321087" lon="8.485418380173831"><ele>163.0</ele><time>2026-04-27T11:32:05.938Z</time></trkpt><trkpt lat="39.633642866753924" lon="8.485544619371922"><ele>164.0</ele><time>2026-04-27T11:32:06.938Z</time></trkpt><trkpt lat="39.63364182259134" lon="8.485665807026612"><ele>163.16666666666666</ele><time>2026-04-27T11:32:07.938Z</time></trkpt><trkpt lat="39.63364247639187" lon="8.485789958610352"><ele>162.33333333333331</ele><time>2026-04-27T11:32:08.938Z</time></trkpt><trkpt lat="39.633652065584904" lon="8.485905613889027"><ele>161.5</ele><time>2026-04-27T11:32:09.938Z</time></trkpt><trkpt lat="39.633651085754444" lon="8.486020543941796"><ele>160.66666666666666</ele><time>2026-04-27T11:32:10.938Z</time></trkpt><trkpt lat="39.63366154712225" lon="8.486130119867392"><ele>159.83333333333334</ele><time>2026-04-27T11:32:11.938Z</time></trkpt><trkpt lat="39.63368093241583" lon="8.486244491656729"><ele>159.0</ele><time>2026-04-27T11:32:12.938Z</time></trkpt><trkpt lat="39.63369025662054" lon="8.486355747786021"><ele>159.0</ele><time>2026-04-27T11:32:13.938Z</time></trkpt><trkpt lat="39.63367646418268" lon="8.48645865529591"><ele>159.0</ele><time>2026-04-27T11:32:14.938Z</time></trkpt><trkpt lat="39.633673511707485" lon="8.486544662720709"><ele>159.0</ele><time>2026-04-27T11:32:15.938Z</time></trkpt><trkpt lat="39.63367887368361" lon="8.486676853194403"><ele>159.0</ele><time>2026-04-27T11:32:17.938Z</time></trkpt><trkpt lat="39.63368274167001" lon="8.486776370061321"><ele>159.0</ele><time>2026-04-27T11:32:27.938Z</time></trkpt><trkpt lat="39.6336757089169" lon="8.486924280059815"><ele>159.0</ele><time>2026-04-27T11:32:29.938Z</time></trkpt><trkpt lat="39.63368503237711" lon="8.487008822194362"><ele>159.57142857142856</ele><time>2026-04-27T11:32:30.938Z</time></trkpt><trkpt lat="39.633691344806245" lon="8.487097970505657"><ele>160.14285714285717</ele><time>2026-04-27T11:32:31.938Z</time></trkpt><trkpt lat="39.633692421172476" lon="8.48719652009623"><ele>160.71428571428572</ele><time>2026-04-27T11:32:32.938Z</time></trkpt><trkpt lat="39.633695091907576" lon="8.487296398659655"><ele>161.28571428571428</ele><time>2026-04-27T11:32:33.939Z</time></trkpt><trkpt lat="39.63369715440648" lon="8.487385975584598"><ele>161.85714285714283</ele><time>2026-04-27T11:32:34.939Z</time></trkpt><trkpt lat="39.63369697595723" lon="8.487476929718175"><ele>162.42857142857144</ele><time>2026-04-27T11:32:35.939Z</time></trkpt><trkpt lat="39.63369841958338" lon="8.487591978864398"><ele>163.0</ele><time>2026-04-27T11:32:36.939Z</time></trkpt><trkpt lat="39.63370823276499" lon="8.487691439585225"><ele>163.0</ele><time>2026-04-27T11:32:37.939Z</time></trkpt><trkpt lat="39.633722595031315" lon="8.487790653071427"><ele>163.0</ele><time>2026-04-27T11:32:38.939Z</time></trkpt><trkpt lat="39.63372194159066" lon="8.48789527361737"><ele>163.0</ele><time>2026-04-27T11:32:39.939Z</time></trkpt><trkpt lat="39.633738105311906" lon="8.487998882367226"><ele>163.0</ele><time>2026-04-27T11:32:40.939Z</time></trkpt><trkpt lat="39.63374750859372" lon="8.488106594558353"><ele>163.0</ele><time>2026-04-27T11:32:41.939Z</time></trkpt><trkpt lat="39.63375619209521" lon="8.48821917909942"><ele>163.0</ele><time>2026-04-27T11:32:42.939Z</time></trkpt><trkpt lat="39.6337726729695" lon="8.488330840146139"><ele>163.5</ele><time>2026-04-27T11:32:43.939Z</time></trkpt><trkpt lat="39.63380316329496" lon="8.488424610871457"><ele>164.0</ele><time>2026-04-27T11:32:44.939Z</time></trkpt><trkpt lat="39.63384497301078" lon="8.488509170041146"><ele>164.5</ele><time>2026-04-27T11:32:45.939Z</time></trkpt><trkpt lat="39.63388954985343" lon="8.488596526464207"><ele>165.0</ele><time>2026-04-27T11:32:46.939Z</time></trkpt><trkpt lat="39.63394591503182" lon="8.488698014656856"><ele>165.5</ele><time>2026-04-27T11:32:47.939Z</time></trkpt><trkpt lat="39.63399281059624" lon="8.488789028715566"><ele>166.0</ele><time>2026-04-27T11:32:48.939Z</time></trkpt><trkpt lat="39.63403560502031" lon="8.488893097832452"><ele>167.20000000000002</ele><time>2026-04-27T11:32:49.939Z</time></trkpt><trkpt lat="39.63406716433121" lon="8.489006557096253"><ele>168.4</ele><time>2026-04-27T11:32:50.939Z</time></trkpt><trkpt lat="39.6340803469305" lon="8.489122990653824"><ele>169.6</ele><time>2026-04-27T11:32:51.939Z</time></trkpt><trkpt lat="39.63413755871444" lon="8.489211622043445"><ele>170.8</ele><time>2026-04-27T11:32:52.939Z</time></trkpt><trkpt lat="39.63419117082585" lon="8.489281465266796"><ele>172.0</ele><time>2026-04-27T11:32:53.939Z</time></trkpt><trkpt lat="39.63431178333966" lon="8.4893480275498"><ele>172.0</ele><time>2026-04-27T11:32:55.939Z</time></trkpt><trkpt lat="39.634373218166424" lon="8.489386563269203"><ele>172.0</ele><time>2026-04-27T11:32:56.939Z</time></trkpt><trkpt lat="39.63442997924984" lon="8.489434078101798"><ele>172.0</ele><time>2026-04-27T11:32:57.939Z</time></trkpt><trkpt lat="39.6344831763411" lon="8.489508119508654"><ele>172.0</ele><time>2026-04-27T11:32:58.939Z</time></trkpt><trkpt lat="39.634527083865855" lon="8.489585851788151"><ele>172.0</ele><time>2026-04-27T11:32:59.939Z</time></trkpt><trkpt lat="39.634569747273105" lon="8.489652265315065"><ele>172.0</ele><time>2026-04-27T11:33:00.939Z</time></trkpt><trkpt lat="39.634655870273534" lon="8.489728160494527"><ele>171.83333333333334</ele><time>2026-04-27T11:33:02.939Z</time></trkpt><trkpt lat="39.63475269548979" lon="8.48975136963807"><ele>171.66666666666669</ele><time>2026-04-27T11:33:04.939Z</time></trkpt><trkpt lat="39.634817405295394" lon="8.489726622619148"><ele>171.5</ele><time>2026-04-27T11:33:05.939Z</time></trkpt><trkpt lat="39.63489779521471" lon="8.489723504046514"><ele>171.33333333333334</ele><time>2026-04-27T11:33:06.939Z</time></trkpt><trkpt lat="39.6349649145763" lon="8.489741113816196"><ele>171.16666666666666</ele><time>2026-04-27T11:33:07.939Z</time></trkpt><trkpt lat="39.635031759547985" lon="8.489783865036177"><ele>171.0</ele><time>2026-04-27T11:33:08.939Z</time></trkpt><trkpt lat="39.635101150650875" lon="8.489834164198696"><ele>171.0</ele><time>2026-04-27T11:33:09.939Z</time></trkpt><trkpt lat="39.63516245674339" lon="8.489901359903458"><ele>171.0</ele><time>2026-04-27T11:33:10.939Z</time></trkpt><trkpt lat="39.63521124730025" lon="8.489977192091802"><ele>171.0</ele><time>2026-04-27T11:33:11.939Z</time></trkpt><trkpt lat="39.63525582350207" lon="8.490060250151101"><ele>171.0</ele><time>2026-04-27T11:33:12.939Z</time></trkpt><trkpt lat="39.635302015512565" lon="8.490158551653261"><ele>171.0</ele><time>2026-04-27T11:33:13.939Z</time></trkpt><trkpt lat="39.63534021398435" lon="8.490265619588923"><ele>171.0</ele><time>2026-04-27T11:33:14.939Z</time></trkpt><trkpt lat="39.63536576439267" lon="8.49036558530317"><ele>172.0</ele><time>2026-04-27T11:33:15.939Z</time></trkpt><trkpt lat="39.635395486445525" lon="8.49044934749373"><ele>173.0</ele><time>2026-04-27T11:33:16.939Z</time></trkpt><trkpt lat="39.635422662554866" lon="8.490531861797084"><ele>174.0</ele><time>2026-04-27T11:33:17.939Z</time></trkpt><trkpt lat="39.63544873512728" lon="8.490620156561617"><ele>175.0</ele><time>2026-04-27T11:33:18.939Z</time></trkpt><trkpt lat="39.63549874407996" lon="8.490682031561986"><ele>176.0</ele><time>2026-04-27T11:33:19.939Z</time></trkpt><trkpt lat="39.63555516221157" lon="8.490739245443985"><ele>177.0</ele><time>2026-04-27T11:33:20.939Z</time></trkpt><trkpt lat="39.635639276284444" lon="8.490856530079263"><ele>177.0</ele><time>2026-04-27T11:33:22.939Z</time></trkpt><trkpt lat="39.63568008120131" lon="8.491000916634011"><ele>177.0</ele><time>2026-04-27T11:33:24.939Z</time></trkpt><trkpt lat="39.63569371704315" lon="8.491093115340913"><ele>177.0</ele><time>2026-04-27T11:33:25.939Z</time></trkpt><trkpt lat="39.63572097186898" lon="8.491250077989141"><ele>177.0</ele><time>2026-04-27T11:33:27.939Z</time></trkpt><trkpt lat="39.635725032414676" lon="8.491420572182317"><ele>177.0</ele><time>2026-04-27T11:33:29.939Z</time></trkpt><trkpt lat="39.63572273280931" lon="8.491589617036363"><ele>178.5</ele><time>2026-04-27T11:33:31.939Z</time></trkpt><trkpt lat="39.635700833948796" lon="8.491748254187693"><ele>180.0</ele><time>2026-04-27T11:33:33.939Z</time></trkpt><trkpt lat="39.63568821031132" lon="8.49183588235701"><ele>181.5</ele><time>2026-04-27T11:33:34.939Z</time></trkpt><trkpt lat="39.63566798052637" lon="8.49192591506622"><ele>183.0</ele><time>2026-04-27T11:33:35.939Z</time></trkpt><trkpt lat="39.63564286695452" lon="8.492005897751781"><ele>184.5</ele><time>2026-04-27T11:33:36.939Z</time></trkpt><trkpt lat="39.635616632368446" lon="8.492086323713604"><ele>186.0</ele><time>2026-04-27T11:33:37.94Z</time></trkpt><trkpt lat="39.63555384329691" lon="8.492234708312239"><ele>187.0</ele><time>2026-04-27T11:33:39.939Z</time></trkpt><trkpt lat="39.63548679925139" lon="8.49234873968188"><ele>188.0</ele><time>2026-04-27T11:33:41.94Z</time></trkpt><trkpt lat="39.63543805109988" lon="8.492411430850531"><ele>189.0</ele><time>2026-04-27T11:33:42.939Z</time></trkpt><trkpt lat="39.635397752044305" lon="8.492483662602723"><ele>190.0</ele><time>2026-04-27T11:33:43.939Z</time></trkpt><trkpt lat="39.63535359103228" lon="8.49256884496166"><ele>191.0</ele><time>2026-04-27T11:33:44.939Z</time></trkpt><trkpt lat="39.635323785853714" lon="8.492661034944032"><ele>192.0</ele><time>2026-04-27T11:33:45.939Z</time></trkpt><trkpt lat="39.635293536951586" lon="8.492763904809653"><ele>191.99999999999997</ele><time>2026-04-27T11:33:46.939Z</time></trkpt><trkpt lat="39.6352676593432" lon="8.492865307808362"><ele>192.0</ele><time>2026-04-27T11:33:47.939Z</time></trkpt><trkpt lat="39.63524544658657" lon="8.492956188171785"><ele>192.0</ele><time>2026-04-27T11:33:48.939Z</time></trkpt><trkpt lat="39.63523645792483" lon="8.49305535620003"><ele>192.0</ele><time>2026-04-27T11:33:49.939Z</time></trkpt><trkpt lat="39.63523756687495" lon="8.493137460848136"><ele>192.0</ele><time>2026-04-27T11:33:50.939Z</time></trkpt><trkpt lat="39.63524673218649" lon="8.493231262346628"><ele>191.99999999999997</ele><time>2026-04-27T11:33:51.939Z</time></trkpt><trkpt lat="39.63526063216704" lon="8.493322201151711"><ele>192.0</ele><time>2026-04-27T11:33:52.939Z</time></trkpt><trkpt lat="39.63529278919717" lon="8.493423269816383"><ele>193.16666666666666</ele><time>2026-04-27T11:33:53.939Z</time></trkpt><trkpt lat="39.635306545972476" lon="8.493506537317069"><ele>194.33333333333331</ele><time>2026-04-27T11:33:54.939Z</time></trkpt><trkpt lat="39.635295487596146" lon="8.49360526359889"><ele>195.5</ele><time>2026-04-27T11:33:55.939Z</time></trkpt><trkpt lat="39.63527059596351" lon="8.493725509278514"><ele>196.66666666666666</ele><time>2026-04-27T11:33:56.939Z</time></trkpt><trkpt lat="39.63524691977276" lon="8.493837913053982"><ele>197.83333333333331</ele><time>2026-04-27T11:33:57.939Z</time></trkpt><trkpt lat="39.63522624638599" lon="8.49395186068931"><ele>199.0</ele><time>2026-04-27T11:33:58.939Z</time></trkpt><trkpt lat="39.635181867903995" lon="8.494062975156732"><ele>200.6</ele><time>2026-04-27T11:33:59.939Z</time></trkpt><trkpt lat="39.635125379850656" lon="8.494182896855545"><ele>202.2</ele><time>2026-04-27T11:34:00.939Z</time></trkpt><trkpt lat="39.6350664014569" lon="8.494313223787833"><ele>203.79999999999998</ele><time>2026-04-27T11:34:01.939Z</time></trkpt><trkpt lat="39.63501845706754" lon="8.494435100659832"><ele>205.39999999999998</ele><time>2026-04-27T11:34:02.939Z</time></trkpt><trkpt lat="39.634981970245974" lon="8.494549492449694"><ele>207.0</ele><time>2026-04-27T11:34:03.939Z</time></trkpt><trkpt lat="39.63496655530141" lon="8.494653696186782"><ele>207.66666666666666</ele><time>2026-04-27T11:34:04.939Z</time></trkpt><trkpt lat="39.63496327028244" lon="8.494776133572264"><ele>208.33333333333331</ele><time>2026-04-27T11:34:05.939Z</time></trkpt><trkpt lat="39.6349551804242" lon="8.494900236124442"><ele>209.0</ele><time>2026-04-27T11:34:06.939Z</time></trkpt><trkpt lat="39.6349540937754" lon="8.495004893873103"><ele>209.66666666666666</ele><time>2026-04-27T11:34:07.939Z</time></trkpt><trkpt lat="39.63494917047678" lon="8.49509582881613"><ele>210.33333333333331</ele><time>2026-04-27T11:34:08.939Z</time></trkpt><trkpt lat="39.63496021868852" lon="8.49519893605784"><ele>211.0</ele><time>2026-04-27T11:34:09.939Z</time></trkpt><trkpt lat="39.63492983614245" lon="8.495284512223858"><ele>210.99999999999997</ele><time>2026-04-27T11:34:10.939Z</time></trkpt><trkpt lat="39.634936458170486" lon="8.495379445442229"><ele>211.0</ele><time>2026-04-27T11:34:11.939Z</time></trkpt><trkpt lat="39.634970177858904" lon="8.495455261040512"><ele>211.0</ele><time>2026-04-27T11:34:12.939Z</time></trkpt><trkpt lat="39.63498270638343" lon="8.49559613066399"><ele>211.0</ele><time>2026-04-27T11:34:14.939Z</time></trkpt><trkpt lat="39.63499055281151" lon="8.495680632024394"><ele>210.99999999999997</ele><time>2026-04-27T11:34:16.939Z</time></trkpt><trkpt lat="39.63502976242305" lon="8.495805278285419"><ele>211.0</ele><time>2026-04-27T11:34:25.94Z</time></trkpt><trkpt lat="39.63511509437305" lon="8.495872130142295"><ele>213.4</ele><time>2026-04-27T11:34:27.94Z</time></trkpt><trkpt lat="39.63517614675855" lon="8.495979813495474"><ele>215.8</ele><time>2026-04-27T11:34:29.94Z</time></trkpt><trkpt lat="39.63521569076168" lon="8.496090325746414"><ele>218.20000000000002</ele><time>2026-04-27T11:34:31.94Z</time></trkpt><trkpt lat="39.635281642878766" lon="8.496174356931947"><ele>220.60000000000002</ele><time>2026-04-27T11:34:33.94Z</time></trkpt><trkpt lat="39.63533022038427" lon="8.496269716742537"><ele>223.0</ele><time>2026-04-27T11:34:35.94Z</time></trkpt><trkpt lat="39.6353183527113" lon="8.49639794894103"><ele>224.33333333333331</ele><time>2026-04-27T11:34:37.94Z</time></trkpt><trkpt lat="39.63524871715162" lon="8.496487210404934"><ele>225.66666666666666</ele><time>2026-04-27T11:34:39.94Z</time></trkpt><trkpt lat="39.635198299485175" lon="8.496580795327082"><ele>227.0</ele><time>2026-04-27T11:34:42.94Z</time></trkpt><trkpt lat="39.635232461932475" lon="8.496690728089439"><ele>228.33333333333331</ele><time>2026-04-27T11:34:44.94Z</time></trkpt><trkpt lat="39.635289561978674" lon="8.496727243258643"><ele>229.66666666666666</ele><time>2026-04-27T11:34:46.94Z</time></trkpt><trkpt lat="39.63535273809897" lon="8.496812186591079"><ele>231.0</ele><time>2026-04-27T11:34:48.94Z</time></trkpt><trkpt lat="39.63536778682419" lon="8.496947410154105"><ele>231.0</ele><time>2026-04-27T11:34:50.94Z</time></trkpt><trkpt lat="39.63540085557513" lon="8.497059431857691"><ele>231.00000000000003</ele><time>2026-04-27T11:34:52.94Z</time></trkpt><trkpt lat="39.63546696329782" lon="8.497175125926319"><ele>231.00000000000003</ele><time>2026-04-27T11:34:54.94Z</time></trkpt><trkpt lat="39.635513167889506" lon="8.49728179205676"><ele>231.0</ele><time>2026-04-27T11:34:56.94Z</time></trkpt><trkpt lat="39.635534545086976" lon="8.497376302564382"><ele>231.0</ele><time>2026-04-27T11:34:58.94Z</time></trkpt><trkpt lat="39.63555241904478" lon="8.497510571626163"><ele>233.16666666666666</ele><time>2026-04-27T11:35:00.94Z</time></trkpt><trkpt lat="39.6355274982918" lon="8.497638053957038"><ele>235.33333333333331</ele><time>2026-04-27T11:35:02.94Z</time></trkpt><trkpt lat="39.63546358569572" lon="8.497728025061681"><ele>237.5</ele><time>2026-04-27T11:35:04.94Z</time></trkpt><trkpt lat="39.635406837350814" lon="8.497801917621944"><ele>239.66666666666666</ele><time>2026-04-27T11:35:06.94Z</time></trkpt><trkpt lat="39.63534822488623" lon="8.497849120571"><ele>241.83333333333331</ele><time>2026-04-27T11:35:08.94Z</time></trkpt><trkpt lat="39.63531857811937" lon="8.49794616829781"><ele>244.0</ele><time>2026-04-27T11:35:11.94Z</time></trkpt><trkpt lat="39.63536103334273" lon="8.498054805038707"><ele>246.49999999999997</ele><time>2026-04-27T11:35:13.94Z</time></trkpt><trkpt lat="39.63544377371507" lon="8.498100067639786"><ele>249.0</ele><time>2026-04-27T11:35:15.94Z</time></trkpt><trkpt lat="39.635507118036784" lon="8.498175050072797"><ele>251.5</ele><time>2026-04-27T11:35:17.94Z</time></trkpt><trkpt lat="39.63548105727306" lon="8.498291101840797"><ele>254.0</ele><time>2026-04-27T11:35:19.941Z</time></trkpt><trkpt lat="39.63539968897734" lon="8.498351007271955"><ele>256.5</ele><time>2026-04-27T11:35:21.941Z</time></trkpt><trkpt lat="39.63533789554484" lon="8.49841449751963"><ele>259.0</ele><time>2026-04-27T11:35:23.941Z</time></trkpt><trkpt lat="39.635254496743926" lon="8.498496993518227"><ele>259.0</ele><time>2026-04-27T11:35:25.941Z</time></trkpt><trkpt lat="39.635174924330116" lon="8.498586798411282"><ele>259.0</ele><time>2026-04-27T11:35:27.941Z</time></trkpt><trkpt lat="39.63513051008113" lon="8.498684376899872"><ele>259.0</ele><time>2026-04-27T11:35:29.941Z</time></trkpt><trkpt lat="39.63512797807882" lon="8.498823796932722"><ele>259.0</ele><time>2026-04-27T11:35:31.941Z</time></trkpt><trkpt lat="39.635148904632835" lon="8.498939611788678"><ele>259.0</ele><time>2026-04-27T11:35:33.941Z</time></trkpt><trkpt lat="39.635206668081366" lon="8.49904553046081"><ele>261.2</ele><time>2026-04-27T11:35:35.941Z</time></trkpt><trkpt lat="39.63522665809273" lon="8.499162955235164"><ele>263.4</ele><time>2026-04-27T11:35:37.94Z</time></trkpt><trkpt lat="39.6352682507805" lon="8.499272882482387"><ele>265.6</ele><time>2026-04-27T11:35:39.941Z</time></trkpt><trkpt lat="39.63530950793345" lon="8.499385792547118"><ele>267.8</ele><time>2026-04-27T11:35:41.94Z</time></trkpt><trkpt lat="39.63534134806448" lon="8.499500889797776"><ele>270.0</ele><time>2026-04-27T11:35:43.94Z</time></trkpt><trkpt lat="39.63538492394542" lon="8.49961303886522"><ele>273.8</ele><time>2026-04-27T11:35:45.94Z</time></trkpt><trkpt lat="39.63542390783635" lon="8.499736268665284"><ele>277.6</ele><time>2026-04-27T11:35:47.94Z</time></trkpt><trkpt lat="39.63547187437182" lon="8.499867370209943"><ele>281.4</ele><time>2026-04-27T11:35:49.941Z</time></trkpt><trkpt lat="39.63549961496668" lon="8.499941923486256"><ele>285.2</ele><time>2026-04-27T11:35:50.941Z</time></trkpt><trkpt lat="39.635555085043535" lon="8.500062099522921"><ele>289.0</ele><time>2026-04-27T11:35:52.941Z</time></trkpt><trkpt lat="39.63560995147915" lon="8.500187845067543"><ele>289.0</ele><time>2026-04-27T11:35:54.941Z</time></trkpt><trkpt lat="39.635641450726915" lon="8.500319192680951"><ele>289.0</ele><time>2026-04-27T11:35:56.941Z</time></trkpt><trkpt lat="39.63563506828341" lon="8.500479637403364"><ele>289.0</ele><time>2026-04-27T11:35:58.941Z</time></trkpt><trkpt lat="39.63559731401106" lon="8.500649365351858"><ele>289.0</ele><time>2026-04-27T11:36:00.941Z</time></trkpt><trkpt lat="39.63557049354416" lon="8.50073233866802"><ele>289.0</ele><time>2026-04-27T11:36:01.941Z</time></trkpt><trkpt lat="39.63550340143252" lon="8.500849616296533"><ele>289.0</ele><time>2026-04-27T11:36:03.941Z</time></trkpt><trkpt lat="39.63540587349583" lon="8.50095025768667"><ele>289.0</ele><time>2026-04-27T11:36:05.941Z</time></trkpt><trkpt lat="39.63531106746217" lon="8.501021736644757"><ele>289.0</ele><time>2026-04-27T11:36:07.941Z</time></trkpt><trkpt lat="39.6352118969621" lon="8.501128521293309"><ele>289.0</ele><time>2026-04-27T11:36:09.941Z</time></trkpt><trkpt lat="39.63513573383795" lon="8.501257425141242"><ele>291.59999999999997</ele><time>2026-04-27T11:36:11.941Z</time></trkpt><trkpt lat="39.635088074525044" lon="8.50139725015063"><ele>294.2</ele><time>2026-04-27T11:36:13.942Z</time></trkpt><trkpt lat="39.6350559180316" lon="8.50149953513681"><ele>296.79999999999995</ele><time>2026-04-27T11:36:15.943Z</time></trkpt><trkpt lat="39.63507580880479" lon="8.501655294299667"><ele>299.4</ele><time>2026-04-27T11:36:17.944Z</time></trkpt><trkpt lat="39.63506856461797" lon="8.501792774475962"><ele>302.0</ele><time>2026-04-27T11:36:19.945Z</time></trkpt><trkpt lat="39.63499536901333" lon="8.501847467410053"><ele>302.0</ele><time>2026-04-27T11:36:21.945Z</time></trkpt><trkpt lat="39.634900887748316" lon="8.501912796215857"><ele>302.0</ele><time>2026-04-27T11:36:23.946Z</time></trkpt><trkpt lat="39.63484577494482" lon="8.501972831394939"><ele>302.0</ele><time>2026-04-27T11:36:24.946Z</time></trkpt><trkpt lat="39.63479171383582" lon="8.502030835832498"><ele>302.0</ele><time>2026-04-27T11:36:25.946Z</time></trkpt><trkpt lat="39.634736841411254" lon="8.502082301627846"><ele>302.0</ele><time>2026-04-27T11:36:26.947Z</time></trkpt><trkpt lat="39.63468119519818" lon="8.50213367059661"><ele>302.0</ele><time>2026-04-27T11:36:27.947Z</time></trkpt><trkpt lat="39.63462696208496" lon="8.50218891342991"><ele>301.83333333333337</ele><time>2026-04-27T11:36:28.947Z</time></trkpt><trkpt lat="39.63457516606585" lon="8.502264078999934"><ele>301.6666666666667</ele><time>2026-04-27T11:36:29.947Z</time></trkpt><trkpt lat="39.634522670547426" lon="8.502344960494847"><ele>301.5</ele><time>2026-04-27T11:36:30.947Z</time></trkpt><trkpt lat="39.63447619187556" lon="8.502425256781725"><ele>301.3333333333333</ele><time>2026-04-27T11:36:31.948Z</time></trkpt><trkpt lat="39.63441931675992" lon="8.502516410203157"><ele>301.16666666666663</ele><time>2026-04-27T11:36:32.948Z</time></trkpt><trkpt lat="39.63436568241574" lon="8.502609143807476"><ele>301.0</ele><time>2026-04-27T11:36:33.948Z</time></trkpt><trkpt lat="39.63431034305283" lon="8.502697910520691"><ele>301.0</ele><time>2026-04-27T11:36:34.948Z</time></trkpt><trkpt lat="39.63425350510147" lon="8.502770279120202"><ele>301.0</ele><time>2026-04-27T11:36:35.948Z</time></trkpt><trkpt lat="39.63420404678722" lon="8.502835492937765"><ele>301.0</ele><time>2026-04-27T11:36:36.948Z</time></trkpt><trkpt lat="39.63414356039049" lon="8.5029239410157"><ele>301.0</ele><time>2026-04-27T11:36:37.949Z</time></trkpt><trkpt lat="39.63408257594885" lon="8.503003245088742"><ele>301.0</ele><time>2026-04-27T11:36:38.949Z</time></trkpt><trkpt lat="39.63401669647265" lon="8.503069556321401"><ele>301.0</ele><time>2026-04-27T11:36:39.949Z</time></trkpt><trkpt lat="39.63395203147967" lon="8.50312114937981"><ele>300.0</ele><time>2026-04-27T11:36:40.949Z</time></trkpt><trkpt lat="39.63385900746799" lon="8.503209660661796"><ele>299.0</ele><time>2026-04-27T11:36:42.949Z</time></trkpt><trkpt lat="39.633780094522095" lon="8.503303821401925"><ele>298.0</ele><time>2026-04-27T11:36:44.949Z</time></trkpt><trkpt lat="39.63366722319032" lon="8.503376725020363"><ele>297.0</ele><time>2026-04-27T11:36:46.949Z</time></trkpt><trkpt lat="39.6336054898159" lon="8.503401696784534"><ele>296.0</ele><time>2026-04-27T11:36:47.949Z</time></trkpt><trkpt lat="39.63353999001309" lon="8.503433305668839"><ele>296.0</ele><time>2026-04-27T11:36:48.95Z</time></trkpt><trkpt lat="39.63341148772924" lon="8.503481124487402"><ele>296.0</ele><time>2026-04-27T11:36:50.95Z</time></trkpt><trkpt lat="39.63334796787616" lon="8.503505631830876"><ele>296.0</ele><time>2026-04-27T11:36:51.95Z</time></trkpt><trkpt lat="39.633271489851836" lon="8.503528663022692"><ele>296.0</ele><time>2026-04-27T11:36:52.95Z</time></trkpt><trkpt lat="39.633189869190424" lon="8.503550320474462"><ele>296.0</ele><time>2026-04-27T11:36:53.95Z</time></trkpt><trkpt lat="39.63312644134224" lon="8.503566750967046"><ele>296.0</ele><time>2026-04-27T11:36:54.95Z</time></trkpt><trkpt lat="39.633063721850604" lon="8.503580294699237"><ele>296.0</ele><time>2026-04-27T11:36:55.95Z</time></trkpt><trkpt lat="39.63299862836522" lon="8.503596706396575"><ele>296.0</ele><time>2026-04-27T11:36:56.95Z</time></trkpt><trkpt lat="39.63290331489149" lon="8.503621628112256"><ele>296.0</ele><time>2026-04-27T11:36:58.95Z</time></trkpt><trkpt lat="39.63280421696981" lon="8.503704855667767"><ele>296.0</ele><time>2026-04-27T11:37:00.95Z</time></trkpt><trkpt lat="39.63275021221834" lon="8.50375447197608"><ele>296.0</ele><time>2026-04-27T11:37:01.95Z</time></trkpt><trkpt lat="39.63268846588404" lon="8.503803134594246"><ele>296.0</ele><time>2026-04-27T11:37:02.95Z</time></trkpt><trkpt lat="39.6326150315889" lon="8.503843307994652"><ele>297.5</ele><time>2026-04-27T11:37:03.95Z</time></trkpt><trkpt lat="39.632540722349304" lon="8.503886122032197"><ele>299.0</ele><time>2026-04-27T11:37:04.95Z</time></trkpt><trkpt lat="39.63247388745645" lon="8.50393109919016"><ele>300.5</ele><time>2026-04-27T11:37:05.95Z</time></trkpt><trkpt lat="39.63240291879072" lon="8.503980175514307"><ele>302.0</ele><time>2026-04-27T11:37:06.95Z</time></trkpt><trkpt lat="39.632338207607916" lon="8.504021474243753"><ele>303.5</ele><time>2026-04-27T11:37:07.95Z</time></trkpt><trkpt lat="39.63227139513672" lon="8.504072154041268"><ele>305.0</ele><time>2026-04-27T11:37:08.951Z</time></trkpt><trkpt lat="39.63221365961174" lon="8.504117074531594"><ele>305.0</ele><time>2026-04-27T11:37:09.951Z</time></trkpt><trkpt lat="39.63214575447542" lon="8.50416470592079"><ele>305.0</ele><time>2026-04-27T11:37:10.951Z</time></trkpt><trkpt lat="39.63207557639058" lon="8.504210451457235"><ele>305.0</ele><time>2026-04-27T11:37:11.951Z</time></trkpt><trkpt lat="39.632007776646326" lon="8.504243947313933"><ele>305.0</ele><time>2026-04-27T11:37:12.951Z</time></trkpt><trkpt lat="39.631934688127885" lon="8.504276819731379"><ele>305.0</ele><time>2026-04-27T11:37:13.951Z</time></trkpt><trkpt lat="39.63185758711965" lon="8.504313121992222"><ele>305.0</ele><time>2026-04-27T11:37:14.951Z</time></trkpt><trkpt lat="39.631768905457136" lon="8.504360022419338"><ele>304.5</ele><time>2026-04-27T11:37:15.951Z</time></trkpt><trkpt lat="39.63168212983068" lon="8.504414683066756"><ele>304.0</ele><time>2026-04-27T11:37:16.951Z</time></trkpt><trkpt lat="39.63160645725409" lon="8.504454495047156"><ele>303.5</ele><time>2026-04-27T11:37:17.951Z</time></trkpt><trkpt lat="39.63153575862013" lon="8.50450663499851"><ele>303.0</ele><time>2026-04-27T11:37:18.951Z</time></trkpt><trkpt lat="39.631468193758124" lon="8.504562607155922"><ele>302.5</ele><time>2026-04-27T11:37:19.951Z</time></trkpt><trkpt lat="39.63139891445518" lon="8.504604491868118"><ele>302.0</ele><time>2026-04-27T11:37:20.951Z</time></trkpt><trkpt lat="39.6313412308746" lon="8.504646416135794"><ele>303.28571428571433</ele><time>2026-04-27T11:37:21.951Z</time></trkpt><trkpt lat="39.63128397668888" lon="8.504696300113963"><ele>304.57142857142856</ele><time>2026-04-27T11:37:22.951Z</time></trkpt><trkpt lat="39.631219507365586" lon="8.504744432198661"><ele>305.8571428571429</ele><time>2026-04-27T11:37:23.951Z</time></trkpt><trkpt lat="39.63115515191879" lon="8.504794073982987"><ele>307.14285714285717</ele><time>2026-04-27T11:37:24.951Z</time></trkpt><trkpt lat="39.63109233609379" lon="8.504853821652974"><ele>308.42857142857144</ele><time>2026-04-27T11:37:25.951Z</time></trkpt><trkpt lat="39.631034216457216" lon="8.504897030082939"><ele>309.7142857142857</ele><time>2026-04-27T11:37:26.951Z</time></trkpt><trkpt lat="39.63096842648207" lon="8.504922130374938"><ele>311.0</ele><time>2026-04-27T11:37:27.951Z</time></trkpt><trkpt lat="39.63089470216258" lon="8.50492779068833"><ele>311.0</ele><time>2026-04-27T11:37:28.951Z</time></trkpt><trkpt lat="39.630827400505794" lon="8.504933644678626"><ele>311.0</ele><time>2026-04-27T11:37:29.951Z</time></trkpt><trkpt lat="39.630749238990894" lon="8.504954368974332"><ele>311.0</ele><time>2026-04-27T11:37:30.951Z</time></trkpt><trkpt lat="39.63067576819557" lon="8.50499002810416"><ele>311.0</ele><time>2026-04-27T11:37:31.951Z</time></trkpt><trkpt lat="39.630607172681444" lon="8.50503517393867"><ele>311.0</ele><time>2026-04-27T11:37:32.951Z</time></trkpt><trkpt lat="39.630549678759685" lon="8.505075773883647"><ele>311.0</ele><time>2026-04-27T11:37:33.951Z</time></trkpt><trkpt lat="39.6304347477679" lon="8.50510503045714"><ele>311.0</ele><time>2026-04-27T11:37:35.951Z</time></trkpt><trkpt lat="39.630369755549225" lon="8.505114708768097"><ele>311.0</ele><time>2026-04-27T11:37:36.951Z</time></trkpt><trkpt lat="39.630302929473096" lon="8.505141509922758"><ele>311.0</ele><time>2026-04-27T11:37:37.951Z</time></trkpt><trkpt lat="39.630235281451654" lon="8.505191961376337"><ele>311.0</ele><time>2026-04-27T11:37:38.951Z</time></trkpt><trkpt lat="39.63015984559578" lon="8.505251962948131"><ele>311.0</ele><time>2026-04-27T11:37:39.951Z</time></trkpt><trkpt lat="39.63008724034127" lon="8.505309472299603"><ele>311.0</ele><time>2026-04-27T11:37:40.951Z</time></trkpt><trkpt lat="39.63001803895328" lon="8.505377747052414"><ele>311.4285714285714</ele><time>2026-04-27T11:37:41.951Z</time></trkpt><trkpt lat="39.62996181443338" lon="8.505450183820292"><ele>311.8571428571429</ele><time>2026-04-27T11:37:42.95Z</time></trkpt><trkpt lat="39.629906806872604" lon="8.5055153740415"><ele>312.2857142857143</ele><time>2026-04-27T11:37:43.95Z</time></trkpt><trkpt lat="39.62984603701143" lon="8.505568836583402"><ele>312.71428571428567</ele><time>2026-04-27T11:37:44.95Z</time></trkpt><trkpt lat="39.62979062745778" lon="8.50563313809766"><ele>313.1428571428571</ele><time>2026-04-27T11:37:45.95Z</time></trkpt><trkpt lat="39.62974138595923" lon="8.50570193374067"><ele>313.57142857142856</ele><time>2026-04-27T11:37:46.95Z</time></trkpt><trkpt lat="39.62970126865269" lon="8.505779207827162"><ele>314.0</ele><time>2026-04-27T11:37:47.95Z</time></trkpt><trkpt lat="39.62966658665658" lon="8.505865414778762"><ele>314.0</ele><time>2026-04-27T11:37:48.95Z</time></trkpt><trkpt lat="39.629630073001046" lon="8.505945260847191"><ele>314.0</ele><time>2026-04-27T11:37:49.95Z</time></trkpt><trkpt lat="39.62957772450393" lon="8.506022006794439"><ele>314.0</ele><time>2026-04-27T11:37:50.95Z</time></trkpt><trkpt lat="39.62952599757816" lon="8.50608884758448"><ele>314.0</ele><time>2026-04-27T11:37:51.95Z</time></trkpt><trkpt lat="39.62947157581102" lon="8.506159967054247"><ele>314.0</ele><time>2026-04-27T11:37:52.951Z</time></trkpt><trkpt lat="39.62939778152779" lon="8.506261787905036"><ele>314.0</ele><time>2026-04-27T11:37:54.95Z</time></trkpt><trkpt lat="39.629319046841566" lon="8.50638038134532"><ele>310.8</ele><time>2026-04-27T11:37:57.95Z</time></trkpt><trkpt lat="39.62926642593492" lon="8.506515241101217"><ele>307.59999999999997</ele><time>2026-04-27T11:37:59.951Z</time></trkpt><trkpt lat="39.629243045399406" lon="8.506610732652337"><ele>304.4</ele><time>2026-04-27T11:38:00.951Z</time></trkpt><trkpt lat="39.62921565536942" lon="8.506716023391961"><ele>301.2</ele><time>2026-04-27T11:38:01.951Z</time></trkpt><trkpt lat="39.62920157889455" lon="8.506814628591432"><ele>298.0</ele><time>2026-04-27T11:38:02.951Z</time></trkpt><trkpt lat="39.629186561128236" lon="8.506973696028478"><ele>298.0</ele><time>2026-04-27T11:38:04.951Z</time></trkpt><trkpt lat="39.62919399521759" lon="8.507070363932637"><ele>298.0</ele><time>2026-04-27T11:38:05.951Z</time></trkpt><trkpt lat="39.62920961841907" lon="8.507170289096134"><ele>298.0</ele><time>2026-04-27T11:38:06.951Z</time></trkpt><trkpt lat="39.629219358138045" lon="8.507277267927384"><ele>298.0</ele><time>2026-04-27T11:38:07.951Z</time></trkpt><trkpt lat="39.62922617600621" lon="8.507370185670998"><ele>298.0</ele><time>2026-04-27T11:38:08.951Z</time></trkpt><trkpt lat="39.62922169810072" lon="8.507472207679239"><ele>298.0</ele><time>2026-04-27T11:38:09.951Z</time></trkpt><trkpt lat="39.62922853117668" lon="8.507576813761602"><ele>298.2</ele><time>2026-04-27T11:38:10.951Z</time></trkpt><trkpt lat="39.629245070639094" lon="8.507666963456412"><ele>298.4</ele><time>2026-04-27T11:38:11.951Z</time></trkpt><trkpt lat="39.62925209398477" lon="8.507778354512718"><ele>298.59999999999997</ele><time>2026-04-27T11:38:12.951Z</time></trkpt><trkpt lat="39.62924422755943" lon="8.50792147292213"><ele>298.8</ele><time>2026-04-27T11:38:14.951Z</time></trkpt><trkpt lat="39.62919283960641" lon="8.508033276221406"><ele>299.0</ele><time>2026-04-27T11:38:16.951Z</time></trkpt><trkpt lat="39.6291259439277" lon="8.508095462597016"><ele>299.0</ele><time>2026-04-27T11:38:17.951Z</time></trkpt><trkpt lat="39.62901226992989" lon="8.50814189916442"><ele>299.0</ele><time>2026-04-27T11:38:19.951Z</time></trkpt><trkpt lat="39.628910173308526" lon="8.50819725334853"><ele>299.0</ele><time>2026-04-27T11:38:21.951Z</time></trkpt><trkpt lat="39.628835856569715" lon="8.508310027045654"><ele>299.0</ele><time>2026-04-27T11:38:23.951Z</time></trkpt><trkpt lat="39.628743772026375" lon="8.508359241676443"><ele>299.0</ele><time>2026-04-27T11:38:25.951Z</time></trkpt><trkpt lat="39.6286392809498" lon="8.508365724428549"><ele>299.0</ele><time>2026-04-27T11:38:27.951Z</time></trkpt><trkpt lat="39.62854904418021" lon="8.508434314734231"><ele>299.0</ele><time>2026-04-27T11:38:29.951Z</time></trkpt><trkpt lat="39.628497592690586" lon="8.508521395640567"><ele>299.0</ele><time>2026-04-27T11:38:31.951Z</time></trkpt><trkpt lat="39.62846212855721" lon="8.50859323322771"><ele>299.0</ele><time>2026-04-27T11:38:32.951Z</time></trkpt><trkpt lat="39.628403039741265" lon="8.508719337599432"><ele>299.0</ele><time>2026-04-27T11:38:34.951Z</time></trkpt><trkpt lat="39.628342149576" lon="8.508824324324728"><ele>299.0</ele><time>2026-04-27T11:38:36.951Z</time></trkpt><trkpt lat="39.62826669798755" lon="8.508877113774002"><ele>299.0</ele><time>2026-04-27T11:38:38.951Z</time></trkpt><trkpt lat="39.628198451843026" lon="8.508909269758746"><ele>299.0</ele><time>2026-04-27T11:38:39.951Z</time></trkpt><trkpt lat="39.62812013662005" lon="8.508912802262923"><ele>299.0</ele><time>2026-04-27T11:38:40.951Z</time></trkpt><trkpt lat="39.62805454362515" lon="8.50888993836892"><ele>299.0</ele><time>2026-04-27T11:38:41.951Z</time></trkpt><trkpt lat="39.6279564774595" lon="8.508799619535289"><ele>299.0</ele><time>2026-04-27T11:38:43.951Z</time></trkpt><trkpt lat="39.62792131063034" lon="8.508721525456869"><ele>298.8</ele><time>2026-04-27T11:38:44.951Z</time></trkpt><trkpt lat="39.62789400544397" lon="8.508631825241896"><ele>298.59999999999997</ele><time>2026-04-27T11:38:45.951Z</time></trkpt><trkpt lat="39.62784006894654" lon="8.508518387427667"><ele>298.4</ele><time>2026-04-27T11:38:47.951Z</time></trkpt><trkpt lat="39.62776512106294" lon="8.508491267851532"><ele>298.2</ele><time>2026-04-27T11:38:49.951Z</time></trkpt><trkpt lat="39.62767393909071" lon="8.508562608203336"><ele>298.0</ele><time>2026-04-27T11:38:51.952Z</time></trkpt><trkpt lat="39.62759751547685" lon="8.50867933693635"><ele>298.0</ele><time>2026-04-27T11:38:53.952Z</time></trkpt><trkpt lat="39.6275519674262" lon="8.508792475955483"><ele>298.0</ele><time>2026-04-27T11:38:55.952Z</time></trkpt><trkpt lat="39.6275132749318" lon="8.508916774668613"><ele>298.0</ele><time>2026-04-27T11:38:57.952Z</time></trkpt><trkpt lat="39.62746669964813" lon="8.509021914396657"><ele>298.0</ele><time>2026-04-27T11:38:59.952Z</time></trkpt><trkpt lat="39.62736282214353" lon="8.509105020759815"><ele>298.0</ele><time>2026-04-27T11:39:01.952Z</time></trkpt><trkpt lat="39.62726797409693" lon="8.509207881837511"><ele>298.0</ele><time>2026-04-27T11:39:03.952Z</time></trkpt><trkpt lat="39.62717061617039" lon="8.509292838644"><ele>298.0</ele><time>2026-04-27T11:39:05.952Z</time></trkpt><trkpt lat="39.62710234274545" lon="8.50931397794899"><ele>298.0</ele><time>2026-04-27T11:39:06.952Z</time></trkpt><trkpt lat="39.62702927530606" lon="8.509318426705404"><ele>298.0</ele><time>2026-04-27T11:39:07.952Z</time></trkpt><trkpt lat="39.626911324344064" lon="8.509301828676698"><ele>298.0</ele><time>2026-04-27T11:39:09.952Z</time></trkpt><trkpt lat="39.62681968174821" lon="8.509295379089888"><ele>297.0</ele><time>2026-04-27T11:39:11.952Z</time></trkpt><trkpt lat="39.62675564451201" lon="8.509270846517055"><ele>296.0</ele><time>2026-04-27T11:39:14.952Z</time></trkpt><trkpt lat="39.62668261084569" lon="8.50930846523394"><ele>295.0</ele><time>2026-04-27T11:39:45.953Z</time></trkpt><trkpt lat="39.62661666990644" lon="8.50930010729869"><ele>294.0</ele><time>2026-04-27T11:39:46.953Z</time></trkpt><trkpt lat="39.626530571413255" lon="8.509287626963697"><ele>293.0</ele><time>2026-04-27T11:39:47.953Z</time></trkpt><trkpt lat="39.6264398565967" lon="8.509283278360186"><ele>292.0</ele><time>2026-04-27T11:39:48.951Z</time></trkpt><trkpt lat="39.62634132689145" lon="8.509298828590017"><ele>292.0</ele><time>2026-04-27T11:39:49.952Z</time></trkpt><trkpt lat="39.62622523526819" lon="8.509332160978708"><ele>292.0</ele><time>2026-04-27T11:39:50.952Z</time></trkpt><trkpt lat="39.626118582172964" lon="8.50938606869189"><ele>292.0</ele><time>2026-04-27T11:39:51.951Z</time></trkpt><trkpt lat="39.62600368278781" lon="8.509429214351595"><ele>292.0</ele><time>2026-04-27T11:39:52.952Z</time></trkpt><trkpt lat="39.62588863021523" lon="8.50946673250886"><ele>291.0</ele><time>2026-04-27T11:39:53.952Z</time></trkpt><trkpt lat="39.62577605643532" lon="8.50950184861455"><ele>290.0</ele><time>2026-04-27T11:39:54.952Z</time></trkpt><trkpt lat="39.62567640083795" lon="8.509549997017274"><ele>289.0</ele><time>2026-04-27T11:39:55.951Z</time></trkpt><trkpt lat="39.62558739835379" lon="8.509615353506096"><ele>288.0</ele><time>2026-04-27T11:39:56.951Z</time></trkpt><trkpt lat="39.62551815563626" lon="8.509697573195544"><ele>287.0</ele><time>2026-04-27T11:39:57.951Z</time></trkpt><trkpt lat="39.62546480527501" lon="8.509792399360952"><ele>287.0</ele><time>2026-04-27T11:39:58.952Z</time></trkpt><trkpt lat="39.62540377018428" lon="8.509915930557709"><ele>287.0</ele><time>2026-04-27T11:39:59.952Z</time></trkpt><trkpt lat="39.62534496023442" lon="8.510042834099258"><ele>287.0</ele><time>2026-04-27T11:40:00.952Z</time></trkpt><trkpt lat="39.62526362222831" lon="8.510135162671832"><ele>287.0</ele><time>2026-04-27T11:40:01.951Z</time></trkpt><trkpt lat="39.6251996623206" lon="8.510226540866999"><ele>287.0</ele><time>2026-04-27T11:40:02.951Z</time></trkpt><trkpt lat="39.625117791411164" lon="8.510276792791538"><ele>285.25</ele><time>2026-04-27T11:40:03.951Z</time></trkpt><trkpt lat="39.62503069856666" lon="8.510341406293088"><ele>283.5</ele><time>2026-04-27T11:40:04.951Z</time></trkpt><trkpt lat="39.62493096899326" lon="8.510419677921561"><ele>281.75</ele><time>2026-04-27T11:40:05.951Z</time></trkpt><trkpt lat="39.62483559382072" lon="8.510501143148034"><ele>280.0</ele><time>2026-04-27T11:40:06.951Z</time></trkpt><trkpt lat="39.62474479928192" lon="8.510603517341066"><ele>280.0</ele><time>2026-04-27T11:40:07.951Z</time></trkpt><trkpt lat="39.62466595962368" lon="8.510722136946848"><ele>280.0</ele><time>2026-04-27T11:40:08.951Z</time></trkpt><trkpt lat="39.62459226787378" lon="8.510850149574349"><ele>280.0</ele><time>2026-04-27T11:40:09.951Z</time></trkpt><trkpt lat="39.62451937904984" lon="8.510984175653377"><ele>280.0</ele><time>2026-04-27T11:40:10.951Z</time></trkpt><trkpt lat="39.624455809450744" lon="8.511130577414306"><ele>276.6</ele><time>2026-04-27T11:40:11.951Z</time></trkpt><trkpt lat="39.62443360813436" lon="8.511294643040404"><ele>273.2</ele><time>2026-04-27T11:40:12.951Z</time></trkpt><trkpt lat="39.62440023506628" lon="8.511428350124627"><ele>269.8</ele><time>2026-04-27T11:40:13.951Z</time></trkpt><trkpt lat="39.624351091081856" lon="8.511527226401213"><ele>266.4</ele><time>2026-04-27T11:40:14.951Z</time></trkpt><trkpt lat="39.624273732222896" lon="8.511632782876632"><ele>263.0</ele><time>2026-04-27T11:40:16.952Z</time></trkpt><trkpt lat="39.62418330747439" lon="8.511651368779821"><ele>263.0</ele><time>2026-04-27T11:40:17.952Z</time></trkpt><trkpt lat="39.62407661777654" lon="8.511652391166077"><ele>263.0</ele><time>2026-04-27T11:40:18.952Z</time></trkpt><trkpt lat="39.623986115704376" lon="8.511671253725105"><ele>263.0</ele><time>2026-04-27T11:40:19.952Z</time></trkpt><trkpt lat="39.62391650885635" lon="8.511662881690755"><ele>263.0</ele><time>2026-04-27T11:40:20.952Z</time></trkpt><trkpt lat="39.623832992945914" lon="8.511626614460962"><ele>263.0</ele><time>2026-04-27T11:40:22.952Z</time></trkpt><trkpt lat="39.6239053081648" lon="8.511437690682607"><ele>263.0</ele><time>2026-04-27T11:40:25.952Z</time></trkpt><trkpt lat="39.6239012780009" lon="8.511311342030261"><ele>263.0</ele><time>2026-04-27T11:40:26.952Z</time></trkpt><trkpt lat="39.62390534392849" lon="8.511170155264589"><ele>263.0</ele><time>2026-04-27T11:40:27.952Z</time></trkpt><trkpt lat="39.62390824436859" lon="8.511026058022797"><ele>263.0</ele><time>2026-04-27T11:40:28.952Z</time></trkpt><trkpt lat="39.62393837715479" lon="8.510886515457733"><ele>263.0</ele><time>2026-04-27T11:40:29.952Z</time></trkpt><trkpt lat="39.623942150072565" lon="8.510769714110099"><ele>261.6666666666667</ele><time>2026-04-27T11:40:30.952Z</time></trkpt><trkpt lat="39.623948313427164" lon="8.510683523204813"><ele>260.33333333333337</ele><time>2026-04-27T11:40:31.952Z</time></trkpt><trkpt lat="39.62389072882336" lon="8.510637880025943"><ele>259.0</ele><time>2026-04-27T11:40:33.952Z</time></trkpt><trkpt lat="39.623808585045595" lon="8.51068907091866"><ele>257.6666666666667</ele><time>2026-04-27T11:40:35.952Z</time></trkpt><trkpt lat="39.62376743257592" lon="8.510800777251221"><ele>256.3333333333333</ele><time>2026-04-27T11:40:36.952Z</time></trkpt><trkpt lat="39.6237163647118" lon="8.510906032601968"><ele>255.0</ele><time>2026-04-27T11:40:37.952Z</time></trkpt><trkpt lat="39.623643821101524" lon="8.511006577309722"><ele>253.5</ele><time>2026-04-27T11:40:38.952Z</time></trkpt><trkpt lat="39.623548327559185" lon="8.511089635331848"><ele>252.0</ele><time>2026-04-27T11:40:39.952Z</time></trkpt><trkpt lat="39.623439553278665" lon="8.511154055808346"><ele>250.5</ele><time>2026-04-27T11:40:40.952Z</time></trkpt><trkpt lat="39.62331754645891" lon="8.511215573336841"><ele>249.0</ele><time>2026-04-27T11:40:41.952Z</time></trkpt><trkpt lat="39.62318740575193" lon="8.511279193017984"><ele>249.0</ele><time>2026-04-27T11:40:42.952Z</time></trkpt><trkpt lat="39.623036256411055" lon="8.511347555584646"><ele>249.0</ele><time>2026-04-27T11:40:43.952Z</time></trkpt><trkpt lat="39.62291431630613" lon="8.511399106257455"><ele>249.0</ele><time>2026-04-27T11:40:44.952Z</time></trkpt><trkpt lat="39.6227998759672" lon="8.511457532612278"><ele>249.0</ele><time>2026-04-27T11:40:45.952Z</time></trkpt><trkpt lat="39.622694967311084" lon="8.511566863477606"><ele>243.25</ele><time>2026-04-27T11:40:46.952Z</time></trkpt><trkpt lat="39.6225876351254" lon="8.511675071858257"><ele>237.5</ele><time>2026-04-27T11:40:47.952Z</time></trkpt><trkpt lat="39.622469802069226" lon="8.511771848084852"><ele>231.75</ele><time>2026-04-27T11:40:48.952Z</time></trkpt><trkpt lat="39.622366851596155" lon="8.511867710272092"><ele>226.0</ele><time>2026-04-27T11:40:49.952Z</time></trkpt><trkpt lat="39.62227541885907" lon="8.511948713620871"><ele>226.0</ele><time>2026-04-27T11:40:50.952Z</time></trkpt><trkpt lat="39.62219822101035" lon="8.512049936284727"><ele>226.0</ele><time>2026-04-27T11:40:51.952Z</time></trkpt><trkpt lat="39.62213287651323" lon="8.512184728220191"><ele>226.0</ele><time>2026-04-27T11:40:52.952Z</time></trkpt><trkpt lat="39.622064801094915" lon="8.512325380038513"><ele>226.0</ele><time>2026-04-27T11:40:53.952Z</time></trkpt><trkpt lat="39.62199432985041" lon="8.512467289116367"><ele>224.25</ele><time>2026-04-27T11:40:54.952Z</time></trkpt><trkpt lat="39.621916289388984" lon="8.512613076856239"><ele>222.5</ele><time>2026-04-27T11:40:55.952Z</time></trkpt><trkpt lat="39.62185718803965" lon="8.51277189230455"><ele>220.75</ele><time>2026-04-27T11:40:56.952Z</time></trkpt><trkpt lat="39.621793630297574" lon="8.512901548442663"><ele>219.0</ele><time>2026-04-27T11:40:57.952Z</time></trkpt><trkpt lat="39.62173629102582" lon="8.513037526356545"><ele>219.0</ele><time>2026-04-27T11:40:58.952Z</time></trkpt><trkpt lat="39.62166429472248" lon="8.513154833192475"><ele>219.0</ele><time>2026-04-27T11:40:59.952Z</time></trkpt><trkpt lat="39.621571751993734" lon="8.51323173169971"><ele>219.0</ele><time>2026-04-27T11:41:00.952Z</time></trkpt><trkpt lat="39.62147733866304" lon="8.513337120142058"><ele>219.0</ele><time>2026-04-27T11:41:01.952Z</time></trkpt><trkpt lat="39.62139640537858" lon="8.513472382342972"><ele>219.0</ele><time>2026-04-27T11:41:02.952Z</time></trkpt><trkpt lat="39.62131464729035" lon="8.513604419581629"><ele>219.0</ele><time>2026-04-27T11:41:03.952Z</time></trkpt><trkpt lat="39.621247479659765" lon="8.513742389024163"><ele>219.0</ele><time>2026-04-27T11:41:04.952Z</time></trkpt><trkpt lat="39.62119477470167" lon="8.51388155745423"><ele>219.0</ele><time>2026-04-27T11:41:05.952Z</time></trkpt><trkpt lat="39.62114437405698" lon="8.513980264987996"><ele>218.5</ele><time>2026-04-27T11:41:06.952Z</time></trkpt><trkpt lat="39.62108451407045" lon="8.514023793418815"><ele>218.0</ele><time>2026-04-27T11:41:07.952Z</time></trkpt><trkpt lat="39.621003940396506" lon="8.514050257055297"><ele>217.5</ele><time>2026-04-27T11:41:10.953Z</time></trkpt><trkpt lat="39.62095370898452" lon="8.513942622335957"><ele>217.0</ele><time>2026-04-27T11:41:12.953Z</time></trkpt><trkpt lat="39.62095085096164" lon="8.513848744442049"><ele>216.5</ele><time>2026-04-27T11:41:13.953Z</time></trkpt><trkpt lat="39.62093363904367" lon="8.51374118474458"><ele>216.0</ele><time>2026-04-27T11:41:14.953Z</time></trkpt><trkpt lat="39.62090812331407" lon="8.513637998651213"><ele>215.60000000000002</ele><time>2026-04-27T11:41:15.953Z</time></trkpt><trkpt lat="39.62089445397541" lon="8.513501750442709"><ele>215.20000000000002</ele><time>2026-04-27T11:41:16.953Z</time></trkpt><trkpt lat="39.620877225352324" lon="8.513361710817168"><ele>214.79999999999998</ele><time>2026-04-27T11:41:17.953Z</time></trkpt><trkpt lat="39.62085193245078" lon="8.513241380834694"><ele>214.39999999999998</ele><time>2026-04-27T11:41:18.953Z</time></trkpt><trkpt lat="39.620812122079634" lon="8.513131706459415"><ele>214.0</ele><time>2026-04-27T11:41:19.953Z</time></trkpt><trkpt lat="39.62075513285506" lon="8.513029423218253"><ele>214.0</ele><time>2026-04-27T11:41:20.953Z</time></trkpt><trkpt lat="39.62068988138027" lon="8.512923629722449"><ele>213.99999999999997</ele><time>2026-04-27T11:41:21.953Z</time></trkpt><trkpt lat="39.620620224721804" lon="8.512820647609887"><ele>213.99999999999997</ele><time>2026-04-27T11:41:22.953Z</time></trkpt><trkpt lat="39.6205567671879" lon="8.512699762898427"><ele>214.0</ele><time>2026-04-27T11:41:23.953Z</time></trkpt><trkpt lat="39.62050139325324" lon="8.512569242187798"><ele>214.0</ele><time>2026-04-27T11:41:24.953Z</time></trkpt><trkpt lat="39.62045748956743" lon="8.512425849865902"><ele>211.75</ele><time>2026-04-27T11:41:25.953Z</time></trkpt><trkpt lat="39.620419516123285" lon="8.512271071598656"><ele>209.5</ele><time>2026-04-27T11:41:26.953Z</time></trkpt><trkpt lat="39.62039232446724" lon="8.512131003224892"><ele>207.25</ele><time>2026-04-27T11:41:27.953Z</time></trkpt><trkpt lat="39.62035029349239" lon="8.511983155260875"><ele>205.0</ele><time>2026-04-27T11:41:28.953Z</time></trkpt><trkpt lat="39.62031194503116" lon="8.5118276757955"><ele>210.5</ele><time>2026-04-27T11:41:29.953Z</time></trkpt><trkpt lat="39.620293933391864" lon="8.51166021279312"><ele>216.0</ele><time>2026-04-27T11:41:30.953Z</time></trkpt><trkpt lat="39.62024368730623" lon="8.51152177646498"><ele>221.5</ele><time>2026-04-27T11:41:31.953Z</time></trkpt><trkpt lat="39.6202110871286" lon="8.511373593681652"><ele>227.0</ele><time>2026-04-27T11:41:32.953Z</time></trkpt><trkpt lat="39.6201598566955" lon="8.51122669897736"><ele>227.0</ele><time>2026-04-27T11:41:33.953Z</time></trkpt><trkpt lat="39.62009408485866" lon="8.511084837383034"><ele>227.0</ele><time>2026-04-27T11:41:34.953Z</time></trkpt><trkpt lat="39.62004982605464" lon="8.510950962629753"><ele>227.0</ele><time>2026-04-27T11:41:35.953Z</time></trkpt><trkpt lat="39.62002109925253" lon="8.510851646287422"><ele>227.0</ele><time>2026-04-27T11:41:36.953Z</time></trkpt><trkpt lat="39.61998915729645" lon="8.510748832129345"><ele>227.0</ele><time>2026-04-27T11:41:38.953Z</time></trkpt><trkpt lat="39.619885961719426" lon="8.510810549825749"><ele>227.0</ele><time>2026-04-27T11:41:43.953Z</time></trkpt><trkpt lat="39.61986422031326" lon="8.510938339535544"><ele>227.0</ele><time>2026-04-27T11:41:44.953Z</time></trkpt><trkpt lat="39.61992760409876" lon="8.511044419927794"><ele>227.0</ele><time>2026-04-27T11:41:45.953Z</time></trkpt><trkpt lat="39.619935185636514" lon="8.511158134030815"><ele>227.0</ele><time>2026-04-27T11:41:46.953Z</time></trkpt><trkpt lat="39.619956379538465" lon="8.511279728072557"><ele>227.0</ele><time>2026-04-27T11:41:47.953Z</time></trkpt><trkpt lat="39.61997638722027" lon="8.511417158425939"><ele>228.6</ele><time>2026-04-27T11:41:48.953Z</time></trkpt><trkpt lat="39.61998671093317" lon="8.511550780534181"><ele>230.2</ele><time>2026-04-27T11:41:49.953Z</time></trkpt><trkpt lat="39.61999028803855" lon="8.511682545432219"><ele>231.8</ele><time>2026-04-27T11:41:50.953Z</time></trkpt><trkpt lat="39.61998566302399" lon="8.51181181661219"><ele>233.4</ele><time>2026-04-27T11:41:51.953Z</time></trkpt><trkpt lat="39.61996891715525" lon="8.511942216235157"><ele>235.0</ele><time>2026-04-27T11:41:52.953Z</time></trkpt><trkpt lat="39.619935423984174" lon="8.512063637837803"><ele>234.25</ele><time>2026-04-27T11:41:53.953Z</time></trkpt><trkpt lat="39.619893845183405" lon="8.512201128855596"><ele>233.5</ele><time>2026-04-27T11:41:54.953Z</time></trkpt><trkpt lat="39.619839886350924" lon="8.512341906510215"><ele>232.75</ele><time>2026-04-27T11:41:55.953Z</time></trkpt><trkpt lat="39.61980018365906" lon="8.512486312523782"><ele>232.0</ele><time>2026-04-27T11:41:56.953Z</time></trkpt><trkpt lat="39.61978022731088" lon="8.512641144984645"><ele>232.0</ele><time>2026-04-27T11:41:57.952Z</time></trkpt><trkpt lat="39.61977773180188" lon="8.512796220813138"><ele>232.0</ele><time>2026-04-27T11:41:58.953Z</time></trkpt><trkpt lat="39.619784400354405" lon="8.512946667046553"><ele>232.0</ele><time>2026-04-27T11:41:59.953Z</time></trkpt><trkpt lat="39.61979785135678" lon="8.513080281058144"><ele>232.0</ele><time>2026-04-27T11:42:00.953Z</time></trkpt><trkpt lat="39.61981721387934" lon="8.513187490842894"><ele>232.0</ele><time>2026-04-27T11:42:01.953Z</time></trkpt><trkpt lat="39.619823420412345" lon="8.513275986447338"><ele>232.6</ele><time>2026-04-27T11:42:02.953Z</time></trkpt><trkpt lat="39.61980128199319" lon="8.51341269357699"><ele>233.2</ele><time>2026-04-27T11:42:04.953Z</time></trkpt><trkpt lat="39.619713713202096" lon="8.513419849309592"><ele>233.8</ele><time>2026-04-27T11:42:06.953Z</time></trkpt><trkpt lat="39.61966165177573" lon="8.513309006272408"><ele>234.4</ele><time>2026-04-27T11:42:08.953Z</time></trkpt><trkpt lat="39.6196428163147" lon="8.51313770290761"><ele>235.0</ele><time>2026-04-27T11:42:10.953Z</time></trkpt><trkpt lat="39.61962954134171" lon="8.513035839990835"><ele>235.0</ele><time>2026-04-27T11:42:11.953Z</time></trkpt><trkpt lat="39.61961510607658" lon="8.512928982341379"><ele>235.0</ele><time>2026-04-27T11:42:12.953Z</time></trkpt><trkpt lat="39.61959118840573" lon="8.51281137106063"><ele>235.0</ele><time>2026-04-27T11:42:13.953Z</time></trkpt><trkpt lat="39.619562437204024" lon="8.51267172587425"><ele>235.0</ele><time>2026-04-27T11:42:14.953Z</time></trkpt><trkpt lat="39.61954816961335" lon="8.512536704219091"><ele>235.0</ele><time>2026-04-27T11:42:15.953Z</time></trkpt><trkpt lat="39.6195373636396" lon="8.512408123483212"><ele>235.0</ele><time>2026-04-27T11:42:16.953Z</time></trkpt><trkpt lat="39.6195472898429" lon="8.512293388735255"><ele>235.0</ele><time>2026-04-27T11:42:17.953Z</time></trkpt><trkpt lat="39.61958210367778" lon="8.512171638325402"><ele>235.0</ele><time>2026-04-27T11:42:18.953Z</time></trkpt><trkpt lat="39.619591024026285" lon="8.51205629493389"><ele>235.0</ele><time>2026-04-27T11:42:19.953Z</time></trkpt><trkpt lat="39.61959827772158" lon="8.511950102825907"><ele>235.0</ele><time>2026-04-27T11:42:20.953Z</time></trkpt><trkpt lat="39.619589308784676" lon="8.51183422298915"><ele>235.0</ele><time>2026-04-27T11:42:21.953Z</time></trkpt><trkpt lat="39.61956348922156" lon="8.511721688334879"><ele>235.0</ele><time>2026-04-27T11:42:22.953Z</time></trkpt><trkpt lat="39.619530080536016" lon="8.51160468875227"><ele>235.0</ele><time>2026-04-27T11:42:23.953Z</time></trkpt><trkpt lat="39.61948618182632" lon="8.511479462605621"><ele>235.0</ele><time>2026-04-27T11:42:24.953Z</time></trkpt><trkpt lat="39.619441278503004" lon="8.51136408437037"><ele>235.0</ele><time>2026-04-27T11:42:25.953Z</time></trkpt><trkpt lat="39.61940558782668" lon="8.511252834264623"><ele>237.49999999999997</ele><time>2026-04-27T11:42:26.953Z</time></trkpt><trkpt lat="39.61935341266642" lon="8.511164261529979"><ele>240.0</ele><time>2026-04-27T11:42:27.953Z</time></trkpt><trkpt lat="39.619288452581394" lon="8.511100173672544"><ele>242.5</ele><time>2026-04-27T11:42:28.953Z</time></trkpt><trkpt lat="39.61922345585341" lon="8.511061844006779"><ele>245.0</ele><time>2026-04-27T11:42:29.953Z</time></trkpt><trkpt lat="39.61914720906065" lon="8.511046037569256"><ele>247.49999999999997</ele><time>2026-04-27T11:42:30.953Z</time></trkpt><trkpt lat="39.6190685893169" lon="8.511061693745548"><ele>250.0</ele><time>2026-04-27T11:42:31.953Z</time></trkpt><trkpt lat="39.61899836807663" lon="8.511137060139076"><ele>250.0</ele><time>2026-04-27T11:42:32.953Z</time></trkpt><trkpt lat="39.61890934640291" lon="8.511153668461576"><ele>250.0</ele><time>2026-04-27T11:42:33.953Z</time></trkpt><trkpt lat="39.618815447931844" lon="8.511189579213806"><ele>250.0</ele><time>2026-04-27T11:42:34.953Z</time></trkpt><trkpt lat="39.61872328327716" lon="8.51120939283044"><ele>250.0</ele><time>2026-04-27T11:42:35.953Z</time></trkpt><trkpt lat="39.618631493734654" lon="8.51121218378723"><ele>250.0</ele><time>2026-04-27T11:42:36.953Z</time></trkpt><trkpt lat="39.618527957050254" lon="8.511243016848137"><ele>254.2</ele><time>2026-04-27T11:42:37.953Z</time></trkpt><trkpt lat="39.61841195114213" lon="8.511245579461093"><ele>258.4</ele><time>2026-04-27T11:42:38.953Z</time></trkpt><trkpt lat="39.61830067349237" lon="8.511270559592552"><ele>262.6</ele><time>2026-04-27T11:42:39.953Z</time></trkpt><trkpt lat="39.618196295702475" lon="8.511301154346969"><ele>266.8</ele><time>2026-04-27T11:42:40.953Z</time></trkpt><trkpt lat="39.61809309102397" lon="8.511339100090495"><ele>271.0</ele><time>2026-04-27T11:42:41.953Z</time></trkpt><trkpt lat="39.6179730934805" lon="8.511373875449772"><ele>271.0</ele><time>2026-04-27T11:42:42.953Z</time></trkpt><trkpt lat="39.617845932055054" lon="8.51140966683178"><ele>271.0</ele><time>2026-04-27T11:42:43.953Z</time></trkpt><trkpt lat="39.617730274273434" lon="8.511454976822572"><ele>271.0</ele><time>2026-04-27T11:42:44.953Z</time></trkpt><trkpt lat="39.617615747140526" lon="8.51150186635752"><ele>271.0</ele><time>2026-04-27T11:42:45.953Z</time></trkpt><trkpt lat="39.61751148887173" lon="8.511541492601992"><ele>271.25</ele><time>2026-04-27T11:42:46.953Z</time></trkpt><trkpt lat="39.617395493387534" lon="8.511574062338795"><ele>271.5</ele><time>2026-04-27T11:42:47.953Z</time></trkpt><trkpt lat="39.61728207608102" lon="8.511626805411396"><ele>271.75</ele><time>2026-04-27T11:42:48.953Z</time></trkpt><trkpt lat="39.61717214019386" lon="8.51165041612513"><ele>272.0</ele><time>2026-04-27T11:42:49.953Z</time></trkpt><trkpt lat="39.61707239879921" lon="8.511672247067873"><ele>271.2</ele><time>2026-04-27T11:42:50.954Z</time></trkpt><trkpt lat="39.61697417500713" lon="8.511713673053004"><ele>270.4</ele><time>2026-04-27T11:42:51.954Z</time></trkpt><trkpt lat="39.61688503049681" lon="8.511780676355901"><ele>269.6</ele><time>2026-04-27T11:42:52.954Z</time></trkpt><trkpt lat="39.616798296481306" lon="8.511850332869477"><ele>268.8</ele><time>2026-04-27T11:42:53.954Z</time></trkpt><trkpt lat="39.616719800415304" lon="8.511924261151357"><ele>268.0</ele><time>2026-04-27T11:42:54.954Z</time></trkpt><trkpt lat="39.61663887138098" lon="8.5119796711371"><ele>268.0</ele><time>2026-04-27T11:42:55.954Z</time></trkpt><trkpt lat="39.61658657479358" lon="8.512062473472541"><ele>268.0</ele><time>2026-04-27T11:42:56.954Z</time></trkpt><trkpt lat="39.61652505115194" lon="8.512134126268865"><ele>268.0</ele><time>2026-04-27T11:42:57.954Z</time></trkpt><trkpt lat="39.61645563187173" lon="8.512179743843987"><ele>268.0</ele><time>2026-04-27T11:42:58.954Z</time></trkpt><trkpt lat="39.616394028207736" lon="8.51222965600343"><ele>268.0</ele><time>2026-04-27T11:42:59.954Z</time></trkpt><trkpt lat="39.61632426987132" lon="8.51226927622384"><ele>268.0</ele><time>2026-04-27T11:43:00.954Z</time></trkpt><trkpt lat="39.616247792650555" lon="8.512284483286813"><ele>273.2</ele><time>2026-04-27T11:43:01.954Z</time></trkpt><trkpt lat="39.61616520637529" lon="8.512272938883221"><ele>278.4</ele><time>2026-04-27T11:43:02.954Z</time></trkpt><trkpt lat="39.61608773578121" lon="8.512231023085148"><ele>283.59999999999997</ele><time>2026-04-27T11:43:03.954Z</time></trkpt><trkpt lat="39.61599380813952" lon="8.512199474536503"><ele>288.8</ele><time>2026-04-27T11:43:04.954Z</time></trkpt><trkpt lat="39.61589636117952" lon="8.512175507696822"><ele>294.0</ele><time>2026-04-27T11:43:05.954Z</time></trkpt><trkpt lat="39.61579903967093" lon="8.512174769934875"><ele>294.0</ele><time>2026-04-27T11:43:06.954Z</time></trkpt><trkpt lat="39.615694515296966" lon="8.512145244242793"><ele>294.0</ele><time>2026-04-27T11:43:07.954Z</time></trkpt><trkpt lat="39.61559228867856" lon="8.512125978855885"><ele>294.0</ele><time>2026-04-27T11:43:08.954Z</time></trkpt><trkpt lat="39.61548281535831" lon="8.512114755978194"><ele>294.0</ele><time>2026-04-27T11:43:09.954Z</time></trkpt><trkpt lat="39.61537526786789" lon="8.51210305035127"><ele>294.0</ele><time>2026-04-27T11:43:10.954Z</time></trkpt><trkpt lat="39.61526501774785" lon="8.512108155555678"><ele>295.8</ele><time>2026-04-27T11:43:11.954Z</time></trkpt><trkpt lat="39.61515157776865" lon="8.512109970155118"><ele>297.59999999999997</ele><time>2026-04-27T11:43:12.954Z</time></trkpt><trkpt lat="39.61504403831247" lon="8.51212440765448"><ele>299.4</ele><time>2026-04-27T11:43:13.954Z</time></trkpt><trkpt lat="39.61493639716094" lon="8.512148353273654"><ele>301.2</ele><time>2026-04-27T11:43:14.954Z</time></trkpt><trkpt lat="39.61482751701639" lon="8.512174079897347"><ele>303.0</ele><time>2026-04-27T11:43:15.954Z</time></trkpt><trkpt lat="39.61472450827008" lon="8.512188198716096"><ele>303.0</ele><time>2026-04-27T11:43:16.954Z</time></trkpt><trkpt lat="39.614631379344154" lon="8.512216978288064"><ele>303.0</ele><time>2026-04-27T11:43:17.954Z</time></trkpt><trkpt lat="39.61454305597403" lon="8.51224647429037"><ele>303.0</ele><time>2026-04-27T11:43:18.954Z</time></trkpt><trkpt lat="39.61445136036954" lon="8.512290313437845"><ele>303.0</ele><time>2026-04-27T11:43:19.954Z</time></trkpt><trkpt lat="39.614361193991606" lon="8.512353818113295"><ele>303.0</ele><time>2026-04-27T11:43:20.954Z</time></trkpt><trkpt lat="39.61427966664213" lon="8.512437958251667"><ele>302.2</ele><time>2026-04-27T11:43:21.954Z</time></trkpt><trkpt lat="39.614211618128294" lon="8.512532889205128"><ele>301.4</ele><time>2026-04-27T11:43:22.954Z</time></trkpt><trkpt lat="39.61415000711987" lon="8.512627760812073"><ele>300.59999999999997</ele><time>2026-04-27T11:43:23.954Z</time></trkpt><trkpt lat="39.61407335375629" lon="8.512737766028227"><ele>299.8</ele><time>2026-04-27T11:43:24.954Z</time></trkpt><trkpt lat="39.614010836996215" lon="8.512838521575"><ele>299.0</ele><time>2026-04-27T11:43:25.954Z</time></trkpt><trkpt lat="39.6139475082403" lon="8.51291998519175"><ele>301.33333333333337</ele><time>2026-04-27T11:43:26.954Z</time></trkpt><trkpt lat="39.61389483785664" lon="8.512982206287695"><ele>303.6666666666667</ele><time>2026-04-27T11:43:27.954Z</time></trkpt><trkpt lat="39.61382311437918" lon="8.5130365728976"><ele>306.0</ele><time>2026-04-27T11:43:28.954Z</time></trkpt><trkpt lat="39.61373279063757" lon="8.513057458434394"><ele>308.3333333333333</ele><time>2026-04-27T11:43:29.954Z</time></trkpt><trkpt lat="39.6136490404699" lon="8.513039227137426"><ele>310.66666666666663</ele><time>2026-04-27T11:43:30.954Z</time></trkpt><trkpt lat="39.61356695219658" lon="8.51301579260319"><ele>313.0</ele><time>2026-04-27T11:43:31.954Z</time></trkpt><trkpt lat="39.613485945886886" lon="8.512989028996557"><ele>313.0</ele><time>2026-04-27T11:43:32.954Z</time></trkpt><trkpt lat="39.61339137708877" lon="8.512950476123839"><ele>313.0</ele><time>2026-04-27T11:43:33.954Z</time></trkpt><trkpt lat="39.61327657848099" lon="8.512938697287591"><ele>313.0</ele><time>2026-04-27T11:43:34.954Z</time></trkpt><trkpt lat="39.613165907338924" lon="8.512931984348493"><ele>313.0</ele><time>2026-04-27T11:43:35.954Z</time></trkpt><trkpt lat="39.61304872991377" lon="8.512932909348516"><ele>313.0</ele><time>2026-04-27T11:43:36.954Z</time></trkpt><trkpt lat="39.612956531377634" lon="8.512928055710029"><ele>313.0</ele><time>2026-04-27T11:43:37.954Z</time></trkpt><trkpt lat="39.612861712452975" lon="8.512929712625773"><ele>313.0</ele><time>2026-04-27T11:43:38.954Z</time></trkpt><trkpt lat="39.612780751198976" lon="8.51297405543178"><ele>313.0</ele><time>2026-04-27T11:43:39.954Z</time></trkpt><trkpt lat="39.6127105594447" lon="8.51301305651804"><ele>313.0</ele><time>2026-04-27T11:43:40.954Z</time></trkpt><trkpt lat="39.61264501287048" lon="8.513056818740003"><ele>313.0</ele><time>2026-04-27T11:43:41.955Z</time></trkpt><trkpt lat="39.61256170155893" lon="8.513145768587853"><ele>313.0</ele><time>2026-04-27T11:43:42.955Z</time></trkpt><trkpt lat="39.61248244246224" lon="8.513257122435867"><ele>311.75</ele><time>2026-04-27T11:43:43.955Z</time></trkpt><trkpt lat="39.61239806376114" lon="8.513378946163535"><ele>310.5</ele><time>2026-04-27T11:43:44.955Z</time></trkpt><trkpt lat="39.612315605522234" lon="8.513492299843133"><ele>309.25</ele><time>2026-04-27T11:43:45.955Z</time></trkpt><trkpt lat="39.612229840791095" lon="8.513610020259046"><ele>308.0</ele><time>2026-04-27T11:43:46.955Z</time></trkpt><trkpt lat="39.61214969390667" lon="8.513718638326324"><ele>307.5</ele><time>2026-04-27T11:43:47.955Z</time></trkpt><trkpt lat="39.612064884597196" lon="8.513831145663145"><ele>307.0</ele><time>2026-04-27T11:43:48.955Z</time></trkpt><trkpt lat="39.61198777392682" lon="8.513933440033261"><ele>306.5</ele><time>2026-04-27T11:43:49.955Z</time></trkpt><trkpt lat="39.61191221529425" lon="8.514041619369776"><ele>306.0</ele><time>2026-04-27T11:43:50.955Z</time></trkpt><trkpt lat="39.61184299915495" lon="8.514158506371562"><ele>306.0</ele><time>2026-04-27T11:43:51.955Z</time></trkpt><trkpt lat="39.61174578898368" lon="8.514229435244864"><ele>306.0</ele><time>2026-04-27T11:43:52.955Z</time></trkpt><trkpt lat="39.61165782197414" lon="8.514302771636844"><ele>306.0</ele><time>2026-04-27T11:43:53.955Z</time></trkpt><trkpt lat="39.61156676940996" lon="8.514369379346656"><ele>306.0</ele><time>2026-04-27T11:43:54.955Z</time></trkpt><trkpt lat="39.611463806049635" lon="8.51444357367124"><ele>306.0</ele><time>2026-04-27T11:43:55.955Z</time></trkpt><trkpt lat="39.61135348385529" lon="8.51450519595271"><ele>306.0</ele><time>2026-04-27T11:43:56.955Z</time></trkpt><trkpt lat="39.611241459990254" lon="8.514552385727296"><ele>306.0</ele><time>2026-04-27T11:43:57.955Z</time></trkpt><trkpt lat="39.611145069834414" lon="8.514644044579734"><ele>306.0</ele><time>2026-04-27T11:43:58.955Z</time></trkpt><trkpt lat="39.611029011685424" lon="8.514714593769174"><ele>306.0</ele><time>2026-04-27T11:43:59.955Z</time></trkpt><trkpt lat="39.61092926238232" lon="8.514806488375536"><ele>303.75</ele><time>2026-04-27T11:44:00.954Z</time></trkpt><trkpt lat="39.61082358541698" lon="8.514891058593907"><ele>301.5</ele><time>2026-04-27T11:44:01.954Z</time></trkpt><trkpt lat="39.61071612887789" lon="8.514995189063733"><ele>299.25</ele><time>2026-04-27T11:44:02.954Z</time></trkpt><trkpt lat="39.610614918521215" lon="8.5150885747339"><ele>297.0</ele><time>2026-04-27T11:44:03.954Z</time></trkpt><trkpt lat="39.61050706694876" lon="8.51517381709096"><ele>297.0</ele><time>2026-04-27T11:44:04.955Z</time></trkpt><trkpt lat="39.6104113895825" lon="8.515257573235749"><ele>297.0</ele><time>2026-04-27T11:44:05.955Z</time></trkpt><trkpt lat="39.61033012157168" lon="8.515331041531281"><ele>297.0</ele><time>2026-04-27T11:44:06.955Z</time></trkpt><trkpt lat="39.61024289529146" lon="8.515414723307556"><ele>297.0</ele><time>2026-04-27T11:44:07.954Z</time></trkpt><trkpt lat="39.61016176001253" lon="8.51548282463368"><ele>297.0</ele><time>2026-04-27T11:44:08.954Z</time></trkpt><trkpt lat="39.610114695948496" lon="8.515559472645554"><ele>295.0</ele><time>2026-04-27T11:44:09.954Z</time></trkpt><trkpt lat="39.610070164771294" lon="8.515617513358817"><ele>293.0</ele><time>2026-04-27T11:44:10.954Z</time></trkpt><trkpt lat="39.61001870685727" lon="8.515677196832943"><ele>291.0</ele><time>2026-04-27T11:44:12.954Z</time></trkpt><trkpt lat="39.61007635704896" lon="8.515803112018558"><ele>289.0</ele><time>2026-04-27T11:44:17.954Z</time></trkpt><trkpt lat="39.610134674583556" lon="8.51585474882367"><ele>287.0</ele><time>2026-04-27T11:44:19.954Z</time></trkpt><trkpt lat="39.61017800568164" lon="8.515915003810639"><ele>285.0</ele><time>2026-04-27T11:44:20.954Z</time></trkpt><trkpt lat="39.610210000773776" lon="8.515998790387803"><ele>285.0</ele><time>2026-04-27T11:44:21.954Z</time></trkpt><trkpt lat="39.61022996559628" lon="8.516094214871124"><ele>285.0</ele><time>2026-04-27T11:44:22.954Z</time></trkpt><trkpt lat="39.610238799231716" lon="8.516207135040602"><ele>285.0</ele><time>2026-04-27T11:44:23.954Z</time></trkpt><trkpt lat="39.610235358492865" lon="8.51632604251706"><ele>285.0</ele><time>2026-04-27T11:44:24.954Z</time></trkpt><trkpt lat="39.61021915649726" lon="8.516485477263473"><ele>285.0</ele><time>2026-04-27T11:44:25.954Z</time></trkpt><trkpt lat="39.61020008655074" lon="8.51665874876417"><ele>283.75</ele><time>2026-04-27T11:44:26.954Z</time></trkpt><trkpt lat="39.61017964349056" lon="8.516832133722094"><ele>282.5</ele><time>2026-04-27T11:44:27.954Z</time></trkpt><trkpt lat="39.610158244923085" lon="8.516975714831677"><ele>281.25</ele><time>2026-04-27T11:44:28.954Z</time></trkpt><trkpt lat="39.61012860084926" lon="8.517124019532158"><ele>280.0</ele><time>2026-04-27T11:44:29.954Z</time></trkpt><trkpt lat="39.610078250632135" lon="8.51727514380587"><ele>280.0</ele><time>2026-04-27T11:44:30.954Z</time></trkpt><trkpt lat="39.61000700440398" lon="8.517412214454984"><ele>280.0</ele><time>2026-04-27T11:44:31.954Z</time></trkpt><trkpt lat="39.60992838006384" lon="8.517564141326728"><ele>280.0</ele><time>2026-04-27T11:44:32.954Z</time></trkpt><trkpt lat="39.60986526533557" lon="8.517712655992426"><ele>280.0</ele><time>2026-04-27T11:44:33.954Z</time></trkpt><trkpt lat="39.60981281427453" lon="8.517866442950156"><ele>281.25</ele><time>2026-04-27T11:44:34.955Z</time></trkpt><trkpt lat="39.609768691539486" lon="8.518028446939825"><ele>282.5</ele><time>2026-04-27T11:44:35.955Z</time></trkpt><trkpt lat="39.609731451845036" lon="8.518195462271244"><ele>283.75</ele><time>2026-04-27T11:44:36.955Z</time></trkpt><trkpt lat="39.609707664091836" lon="8.518360575495231"><ele>285.0</ele><time>2026-04-27T11:44:37.955Z</time></trkpt><trkpt lat="39.609703648229655" lon="8.518519721239246"><ele>285.0</ele><time>2026-04-27T11:44:38.955Z</time></trkpt><trkpt lat="39.60972648370578" lon="8.518685629138709"><ele>285.0</ele><time>2026-04-27T11:44:39.955Z</time></trkpt><trkpt lat="39.609765783475915" lon="8.51884878166159"><ele>285.0</ele><time>2026-04-27T11:44:40.955Z</time></trkpt><trkpt lat="39.609814948515236" lon="8.519023567378794"><ele>285.0</ele><time>2026-04-27T11:44:41.955Z</time></trkpt><trkpt lat="39.60987306535271" lon="8.519210003152637"><ele>283.3333333333333</ele><time>2026-04-27T11:44:42.955Z</time></trkpt><trkpt lat="39.609938056570265" lon="8.519406342869267"><ele>281.66666666666663</ele><time>2026-04-27T11:44:43.955Z</time></trkpt><trkpt lat="39.61001352895169" lon="8.519613187588538"><ele>280.0</ele><time>2026-04-27T11:44:44.955Z</time></trkpt><trkpt lat="39.61009394494165" lon="8.519804756133114"><ele>277.0</ele><time>2026-04-27T11:44:45.955Z</time></trkpt><trkpt lat="39.61017915786266" lon="8.52000407346807"><ele>274.0</ele><time>2026-04-27T11:44:46.955Z</time></trkpt><trkpt lat="39.61026570119257" lon="8.520195111817257"><ele>271.0</ele><time>2026-04-27T11:44:47.955Z</time></trkpt><trkpt lat="39.61032965206386" lon="8.520394253031398"><ele>273.8</ele><time>2026-04-27T11:44:48.955Z</time></trkpt><trkpt lat="39.61040793330604" lon="8.520550502151487"><ele>276.6</ele><time>2026-04-27T11:44:49.955Z</time></trkpt><trkpt lat="39.6104744506564" lon="8.520689765398826"><ele>279.4</ele><time>2026-04-27T11:44:50.955Z</time></trkpt><trkpt lat="39.61052131055307" lon="8.52081385701951"><ele>282.2</ele><time>2026-04-27T11:44:51.955Z</time></trkpt><trkpt lat="39.61054370609732" lon="8.520899257582467"><ele>285.0</ele><time>2026-04-27T11:44:52.955Z</time></trkpt><trkpt lat="39.61048485591324" lon="8.521026379150314"><ele>285.0</ele><time>2026-04-27T11:44:54.955Z</time></trkpt><trkpt lat="39.610433115054" lon="8.521084980098887"><ele>285.0</ele><time>2026-04-27T11:44:55.955Z</time></trkpt><trkpt lat="39.61035330534349" lon="8.52115069511042"><ele>285.0</ele><time>2026-04-27T11:44:56.955Z</time></trkpt><trkpt lat="39.6102555538373" lon="8.521238887924527"><ele>285.0</ele><time>2026-04-27T11:44:57.955Z</time></trkpt><trkpt lat="39.610153689212844" lon="8.521332221658726"><ele>285.0</ele><time>2026-04-27T11:44:58.955Z</time></trkpt><trkpt lat="39.61004317267019" lon="8.521456661039315"><ele>283.5</ele><time>2026-04-27T11:44:59.955Z</time></trkpt><trkpt lat="39.60992229583065" lon="8.521562647793868"><ele>282.0</ele><time>2026-04-27T11:45:00.955Z</time></trkpt><trkpt lat="39.60981488842435" lon="8.521659283355643"><ele>280.5</ele><time>2026-04-27T11:45:01.955Z</time></trkpt><trkpt lat="39.60974733068955" lon="8.52176821742318"><ele>279.0</ele><time>2026-04-27T11:45:02.955Z</time></trkpt><trkpt lat="39.609692136809024" lon="8.52190047380739"><ele>279.0</ele><time>2026-04-27T11:45:03.955Z</time></trkpt><trkpt lat="39.609650187390976" lon="8.52202197399345"><ele>279.0</ele><time>2026-04-27T11:45:04.955Z</time></trkpt><trkpt lat="39.60959882528855" lon="8.522117903494863"><ele>279.0</ele><time>2026-04-27T11:45:05.955Z</time></trkpt><trkpt lat="39.609526538613146" lon="8.522166848783815"><ele>279.0</ele><time>2026-04-27T11:45:06.955Z</time></trkpt><trkpt lat="39.60944655122102" lon="8.52218695988787"><ele>279.0</ele><time>2026-04-27T11:45:07.955Z</time></trkpt><trkpt lat="39.60935581099142" lon="8.522160473568192"><ele>279.0</ele><time>2026-04-27T11:45:08.955Z</time></trkpt><trkpt lat="39.60926798832386" lon="8.522084213173242"><ele>277.5</ele><time>2026-04-27T11:45:09.955Z</time></trkpt><trkpt lat="39.60918098494778" lon="8.52197644542965"><ele>276.0</ele><time>2026-04-27T11:45:10.955Z</time></trkpt><trkpt lat="39.60909210784487" lon="8.521855482510633"><ele>274.5</ele><time>2026-04-27T11:45:11.955Z</time></trkpt><trkpt lat="39.60900154086913" lon="8.521738505722418"><ele>273.0</ele><time>2026-04-27T11:45:12.955Z</time></trkpt><trkpt lat="39.6088923880287" lon="8.521583125417495"><ele>273.0</ele><time>2026-04-27T11:45:13.955Z</time></trkpt><trkpt lat="39.608766786762075" lon="8.521430004873082"><ele>273.0</ele><time>2026-04-27T11:45:14.955Z</time></trkpt><trkpt lat="39.6086522704159" lon="8.521297565405225"><ele>273.0</ele><time>2026-04-27T11:45:15.955Z</time></trkpt><trkpt lat="39.60851955720887" lon="8.521180434344734"><ele>271.6666666666667</ele><time>2026-04-27T11:45:16.955Z</time></trkpt><trkpt lat="39.6083708184933" lon="8.521063354542193"><ele>270.33333333333337</ele><time>2026-04-27T11:45:17.955Z</time></trkpt><trkpt lat="39.608221887102715" lon="8.52095079737789"><ele>269.0</ele><time>2026-04-27T11:45:18.955Z</time></trkpt><trkpt lat="39.6080982054919" lon="8.520883715288003"><ele>269.0</ele><time>2026-04-27T11:45:19.955Z</time></trkpt><trkpt lat="39.60798905636402" lon="8.520824637892087"><ele>269.0</ele><time>2026-04-27T11:45:20.955Z</time></trkpt><trkpt lat="39.607861858307324" lon="8.520840966673052"><ele>269.0</ele><time>2026-04-27T11:45:21.955Z</time></trkpt><trkpt lat="39.6077303366332" lon="8.520856821879454"><ele>269.0</ele><time>2026-04-27T11:45:22.955Z</time></trkpt><trkpt lat="39.60759425757717" lon="8.520889045756093"><ele>270.0</ele><time>2026-04-27T11:45:23.955Z</time></trkpt><trkpt lat="39.60744692035466" lon="8.520937166718646"><ele>271.0</ele><time>2026-04-27T11:45:24.955Z</time></trkpt><trkpt lat="39.607299905162265" lon="8.521009722589392"><ele>272.0</ele><time>2026-04-27T11:45:25.955Z</time></trkpt><trkpt lat="39.60716690906353" lon="8.521093469275517"><ele>272.0</ele><time>2026-04-27T11:45:26.955Z</time></trkpt><trkpt lat="39.607010473841214" lon="8.521191206807599"><ele>272.0</ele><time>2026-04-27T11:45:27.956Z</time></trkpt><trkpt lat="39.606857163510846" lon="8.521282468797093"><ele>272.0</ele><time>2026-04-27T11:45:28.956Z</time></trkpt><trkpt lat="39.60672939665869" lon="8.52143140650663"><ele>273.4</ele><time>2026-04-27T11:45:29.956Z</time></trkpt><trkpt lat="39.6066524454195" lon="8.521518543868956"><ele>274.79999999999995</ele><time>2026-04-27T11:45:30.956Z</time></trkpt><trkpt lat="39.60657472747002" lon="8.52160619644824"><ele>276.2</ele><time>2026-04-27T11:45:31.956Z</time></trkpt><trkpt lat="39.6065164968824" lon="8.52173338564137"><ele>277.59999999999997</ele><time>2026-04-27T11:45:32.956Z</time></trkpt><trkpt lat="39.60649054724136" lon="8.521887831770607"><ele>279.0</ele><time>2026-04-27T11:45:33.956Z</time></trkpt><trkpt lat="39.606487326211976" lon="8.522049852063292"><ele>280.4</ele><time>2026-04-27T11:45:34.956Z</time></trkpt><trkpt lat="39.60645695506055" lon="8.522210528156151"><ele>281.79999999999995</ele><time>2026-04-27T11:45:35.956Z</time></trkpt><trkpt lat="39.60644555728907" lon="8.522343362335175"><ele>283.20000000000005</ele><time>2026-04-27T11:45:36.956Z</time></trkpt><trkpt lat="39.60641196823448" lon="8.522456043437098"><ele>284.6</ele><time>2026-04-27T11:45:37.956Z</time></trkpt><trkpt lat="39.60635678273501" lon="8.522528152747197"><ele>286.0</ele><time>2026-04-27T11:45:38.956Z</time></trkpt><trkpt lat="39.606266840507956" lon="8.522572628958534"><ele>283.75</ele><time>2026-04-27T11:45:39.956Z</time></trkpt><trkpt lat="39.60615379840847" lon="8.522597720921677"><ele>281.5</ele><time>2026-04-27T11:45:40.956Z</time></trkpt><trkpt lat="39.606047726602704" lon="8.522607288407567"><ele>279.25</ele><time>2026-04-27T11:45:41.956Z</time></trkpt><trkpt lat="39.60591442186844" lon="8.52261125021891"><ele>277.0</ele><time>2026-04-27T11:45:42.956Z</time></trkpt><trkpt lat="39.605771139500085" lon="8.52261401185852"><ele>277.0</ele><time>2026-04-27T11:45:43.956Z</time></trkpt><trkpt lat="39.60562745241564" lon="8.522617597249738"><ele>277.0</ele><time>2026-04-27T11:45:44.956Z</time></trkpt><trkpt lat="39.605501840715306" lon="8.522626681886717"><ele>277.0</ele><time>2026-04-27T11:45:45.956Z</time></trkpt><trkpt lat="39.60539531562826" lon="8.52265851844936"><ele>277.0</ele><time>2026-04-27T11:45:46.956Z</time></trkpt><trkpt lat="39.60530297178133" lon="8.522759227495113"><ele>276.75</ele><time>2026-04-27T11:45:47.956Z</time></trkpt><trkpt lat="39.60520963038423" lon="8.522871491421364"><ele>276.5</ele><time>2026-04-27T11:45:48.956Z</time></trkpt><trkpt lat="39.605114502074706" lon="8.522995457721123"><ele>276.25</ele><time>2026-04-27T11:45:49.956Z</time></trkpt><trkpt lat="39.60501605625947" lon="8.523126811523236"><ele>276.0</ele><time>2026-04-27T11:45:50.956Z</time></trkpt><trkpt lat="39.6049109457384" lon="8.523255742454198"><ele>280.0</ele><time>2026-04-27T11:45:51.956Z</time></trkpt><trkpt lat="39.604803657621986" lon="8.523394342683389"><ele>284.0</ele><time>2026-04-27T11:45:52.956Z</time></trkpt><trkpt lat="39.60469285662714" lon="8.523528520307963"><ele>288.0</ele><time>2026-04-27T11:45:53.956Z</time></trkpt><trkpt lat="39.6045856277165" lon="8.523672388014031"><ele>286.75</ele><time>2026-04-27T11:45:54.956Z</time></trkpt><trkpt lat="39.60449404501385" lon="8.5238297125542"><ele>285.5</ele><time>2026-04-27T11:45:55.956Z</time></trkpt><trkpt lat="39.604422935167285" lon="8.523992785112158"><ele>284.25</ele><time>2026-04-27T11:45:56.956Z</time></trkpt><trkpt lat="39.60438065969209" lon="8.52415695884736"><ele>283.0</ele><time>2026-04-27T11:45:57.956Z</time></trkpt><trkpt lat="39.604369887145744" lon="8.524303572985872"><ele>283.0</ele><time>2026-04-27T11:45:58.956Z</time></trkpt><trkpt lat="39.60438930581409" lon="8.524446833457382"><ele>283.0</ele><time>2026-04-27T11:45:59.956Z</time></trkpt><trkpt lat="39.60441891099749" lon="8.524599523514858"><ele>283.0</ele><time>2026-04-27T11:46:00.956Z</time></trkpt><trkpt lat="39.60443778914558" lon="8.5247347247961"><ele>283.0</ele><time>2026-04-27T11:46:01.956Z</time></trkpt><trkpt lat="39.604407638864195" lon="8.524833484499355"><ele>283.0</ele><time>2026-04-27T11:46:02.956Z</time></trkpt><trkpt lat="39.60434419464904" lon="8.524892914662876"><ele>284.5</ele><time>2026-04-27T11:46:03.956Z</time></trkpt><trkpt lat="39.60426130534195" lon="8.524961441826978"><ele>286.0</ele><time>2026-04-27T11:46:04.956Z</time></trkpt><trkpt lat="39.60416292991103" lon="8.525053835606963"><ele>287.5</ele><time>2026-04-27T11:46:05.956Z</time></trkpt><trkpt lat="39.60406003908905" lon="8.525152637600193"><ele>289.0</ele><time>2026-04-27T11:46:06.956Z</time></trkpt><trkpt lat="39.6039771248509" lon="8.525252482698448"><ele>291.75</ele><time>2026-04-27T11:46:07.956Z</time></trkpt><trkpt lat="39.60391499500484" lon="8.52540345600417"><ele>294.5</ele><time>2026-04-27T11:46:08.956Z</time></trkpt><trkpt lat="39.60388491239514" lon="8.525569620227458"><ele>297.25</ele><time>2026-04-27T11:46:09.956Z</time></trkpt><trkpt lat="39.603845727244654" lon="8.525740522509123"><ele>300.0</ele><time>2026-04-27T11:46:10.956Z</time></trkpt><trkpt lat="39.60378996605583" lon="8.525911242861897"><ele>300.0</ele><time>2026-04-27T11:46:11.956Z</time></trkpt><trkpt lat="39.603755629404596" lon="8.526089987976126"><ele>300.0</ele><time>2026-04-27T11:46:12.955Z</time></trkpt><trkpt lat="39.60376186135559" lon="8.526261627142762"><ele>300.0</ele><time>2026-04-27T11:46:13.955Z</time></trkpt><trkpt lat="39.60377976708259" lon="8.526405268733546"><ele>300.0</ele><time>2026-04-27T11:46:14.955Z</time></trkpt><trkpt lat="39.60379056702214" lon="8.526532292917052"><ele>300.4</ele><time>2026-04-27T11:46:15.956Z</time></trkpt><trkpt lat="39.60380131182507" lon="8.526631273904403"><ele>300.8</ele><time>2026-04-27T11:46:16.956Z</time></trkpt><trkpt lat="39.60370654961774" lon="8.526717413794282"><ele>301.2</ele><time>2026-04-27T11:46:18.956Z</time></trkpt><trkpt lat="39.6036235636468" lon="8.526716610533645"><ele>301.6</ele><time>2026-04-27T11:46:19.956Z</time></trkpt><trkpt lat="39.60354678311266" lon="8.526655604420275"><ele>302.0</ele><time>2026-04-27T11:46:20.956Z</time></trkpt><trkpt lat="39.60348119703152" lon="8.526584080626357"><ele>302.0</ele><time>2026-04-27T11:46:21.956Z</time></trkpt><trkpt lat="39.60337006108437" lon="8.526520864669964"><ele>302.0</ele><time>2026-04-27T11:46:22.956Z</time></trkpt><trkpt lat="39.60324480954049" lon="8.52647999832773"><ele>302.0</ele><time>2026-04-27T11:46:23.956Z</time></trkpt><trkpt lat="39.60311127510999" lon="8.52646281762084"><ele>302.0</ele><time>2026-04-27T11:46:24.956Z</time></trkpt><trkpt lat="39.60299557011172" lon="8.526432375795457"><ele>302.0</ele><time>2026-04-27T11:46:25.956Z</time></trkpt><trkpt lat="39.60289093094303" lon="8.526405279149545"><ele>302.0</ele><time>2026-04-27T11:46:26.956Z</time></trkpt><trkpt lat="39.602776399392965" lon="8.526420589979969"><ele>302.0</ele><time>2026-04-27T11:46:27.956Z</time></trkpt><trkpt lat="39.60264583075872" lon="8.526482546742004"><ele>302.0</ele><time>2026-04-27T11:46:28.956Z</time></trkpt><trkpt lat="39.60252258239575" lon="8.52655458437411"><ele>301.75</ele><time>2026-04-27T11:46:29.956Z</time></trkpt><trkpt lat="39.60241156252177" lon="8.526621685443997"><ele>301.5</ele><time>2026-04-27T11:46:30.956Z</time></trkpt><trkpt lat="39.60229268518628" lon="8.526708484215115"><ele>301.25</ele><time>2026-04-27T11:46:31.956Z</time></trkpt><trkpt lat="39.60214631263062" lon="8.526775041783909"><ele>301.0</ele><time>2026-04-27T11:46:32.956Z</time></trkpt><trkpt lat="39.60201189434755" lon="8.526850376021997"><ele>302.5</ele><time>2026-04-27T11:46:33.956Z</time></trkpt><trkpt lat="39.60188588769229" lon="8.526911403166716"><ele>304.0</ele><time>2026-04-27T11:46:34.956Z</time></trkpt><trkpt lat="39.60177923152372" lon="8.52696828354077"><ele>305.5</ele><time>2026-04-27T11:46:35.956Z</time></trkpt><trkpt lat="39.60166478905713" lon="8.52701866740564"><ele>307.0</ele><time>2026-04-27T11:46:36.956Z</time></trkpt><trkpt lat="39.60158413376948" lon="8.527118931009781"><ele>307.0</ele><time>2026-04-27T11:46:37.956Z</time></trkpt><trkpt lat="39.60153555902381" lon="8.527259714490233"><ele>307.0</ele><time>2026-04-27T11:46:38.956Z</time></trkpt><trkpt lat="39.60147470650826" lon="8.527393568597288"><ele>307.0</ele><time>2026-04-27T11:46:39.956Z</time></trkpt><trkpt lat="39.60141626857714" lon="8.527554693829865"><ele>307.0</ele><time>2026-04-27T11:46:40.956Z</time></trkpt><trkpt lat="39.601357827058514" lon="8.527714056455435"><ele>307.0</ele><time>2026-04-27T11:46:41.956Z</time></trkpt><trkpt lat="39.60129265036396" lon="8.527869733334729"><ele>307.0</ele><time>2026-04-27T11:46:42.956Z</time></trkpt><trkpt lat="39.60121684475286" lon="8.52800735009227"><ele>307.0</ele><time>2026-04-27T11:46:43.956Z</time></trkpt><trkpt lat="39.601126065148016" lon="8.528119753926202"><ele>307.0</ele><time>2026-04-27T11:46:44.956Z</time></trkpt><trkpt lat="39.601023654776796" lon="8.528232699781631"><ele>306.5</ele><time>2026-04-27T11:46:45.956Z</time></trkpt><trkpt lat="39.60091056967036" lon="8.528342160524042"><ele>306.0</ele><time>2026-04-27T11:46:46.956Z</time></trkpt><trkpt lat="39.600788012390694" lon="8.528432602544514"><ele>305.5</ele><time>2026-04-27T11:46:47.956Z</time></trkpt><trkpt lat="39.60065810462016" lon="8.528508239715421"><ele>305.0</ele><time>2026-04-27T11:46:48.956Z</time></trkpt><trkpt lat="39.60054644385111" lon="8.528583341111771"><ele>305.0</ele><time>2026-04-27T11:46:49.956Z</time></trkpt><trkpt lat="39.60044121853" lon="8.528664691300596"><ele>305.0</ele><time>2026-04-27T11:46:50.956Z</time></trkpt><trkpt lat="39.600353665874174" lon="8.528772858266667"><ele>305.0</ele><time>2026-04-27T11:46:51.956Z</time></trkpt><trkpt lat="39.60030206788985" lon="8.528898222129149"><ele>305.0</ele><time>2026-04-27T11:46:52.956Z</time></trkpt><trkpt lat="39.60027500110175" lon="8.529044239844632"><ele>304.0</ele><time>2026-04-27T11:46:53.956Z</time></trkpt><trkpt lat="39.60022897230581" lon="8.529180401223433"><ele>303.0</ele><time>2026-04-27T11:46:54.956Z</time></trkpt><trkpt lat="39.60019076802938" lon="8.529358649085932"><ele>302.0</ele><time>2026-04-27T11:46:55.956Z</time></trkpt><trkpt lat="39.60014660444517" lon="8.529550963488816"><ele>301.0</ele><time>2026-04-27T11:46:56.956Z</time></trkpt><trkpt lat="39.600097639262685" lon="8.529757686187853"><ele>301.0</ele><time>2026-04-27T11:46:57.956Z</time></trkpt><trkpt lat="39.600049047300935" lon="8.529948428764843"><ele>301.0</ele><time>2026-04-27T11:46:58.956Z</time></trkpt><trkpt lat="39.59999528325709" lon="8.530153070978399"><ele>301.0</ele><time>2026-04-27T11:46:59.956Z</time></trkpt><trkpt lat="39.599944782075134" lon="8.530343793627836"><ele>302.66666666666663</ele><time>2026-04-27T11:47:00.957Z</time></trkpt><trkpt lat="39.59989140587892" lon="8.53054537454531"><ele>304.3333333333333</ele><time>2026-04-27T11:47:01.957Z</time></trkpt><trkpt lat="39.59985449930757" lon="8.53076827602903"><ele>306.0</ele><time>2026-04-27T11:47:02.957Z</time></trkpt><trkpt lat="39.59980226622377" lon="8.530976874144747"><ele>306.0</ele><time>2026-04-27T11:47:03.957Z</time></trkpt><trkpt lat="39.59975529794877" lon="8.531167386390317"><ele>306.0</ele><time>2026-04-27T11:47:04.957Z</time></trkpt><trkpt lat="39.59970931845492" lon="8.531311895649328"><ele>306.0</ele><time>2026-04-27T11:47:05.957Z</time></trkpt><trkpt lat="39.599627795524704" lon="8.531399324747522"><ele>306.0</ele><time>2026-04-27T11:47:06.957Z</time></trkpt><trkpt lat="39.59956944242289" lon="8.531454187921963"><ele>306.0</ele><time>2026-04-27T11:47:07.957Z</time></trkpt><trkpt lat="39.59949135168904" lon="8.531483255983211"><ele>306.0</ele><time>2026-04-27T11:47:08.957Z</time></trkpt><trkpt lat="39.5993823983093" lon="8.531518942629038"><ele>306.0</ele><time>2026-04-27T11:47:09.957Z</time></trkpt><trkpt lat="39.5992709550971" lon="8.531557119016343"><ele>306.0</ele><time>2026-04-27T11:47:10.957Z</time></trkpt><trkpt lat="39.59914652510206" lon="8.53161719290405"><ele>306.0</ele><time>2026-04-27T11:47:11.957Z</time></trkpt><trkpt lat="39.599020589003366" lon="8.531645715191486"><ele>306.0</ele><time>2026-04-27T11:47:12.957Z</time></trkpt><trkpt lat="39.59887692421579" lon="8.531685917056388"><ele>306.0</ele><time>2026-04-27T11:47:13.957Z</time></trkpt><trkpt lat="39.59873316251278" lon="8.531730479275188"><ele>306.0</ele><time>2026-04-27T11:47:14.957Z</time></trkpt><trkpt lat="39.59858991090511" lon="8.531774607700637"><ele>306.0</ele><time>2026-04-27T11:47:15.957Z</time></trkpt><trkpt lat="39.59846717395872" lon="8.53182249785987"><ele>305.0</ele><time>2026-04-27T11:47:16.957Z</time></trkpt><trkpt lat="39.598374200136384" lon="8.531894068285201"><ele>304.0</ele><time>2026-04-27T11:47:17.957Z</time></trkpt><trkpt lat="39.59827830160671" lon="8.53200295919669"><ele>303.0</ele><time>2026-04-27T11:47:18.957Z</time></trkpt><trkpt lat="39.59818285978766" lon="8.532106078003382"><ele>302.0</ele><time>2026-04-27T11:47:19.957Z</time></trkpt><trkpt lat="39.598084418399345" lon="8.532236781127175"><ele>303.25</ele><time>2026-04-27T11:47:20.957Z</time></trkpt><trkpt lat="39.59798782503259" lon="8.532373759721755"><ele>304.5</ele><time>2026-04-27T11:47:21.957Z</time></trkpt><trkpt lat="39.597868786880376" lon="8.532493327975576"><ele>305.75</ele><time>2026-04-27T11:47:22.957Z</time></trkpt><trkpt lat="39.59779596174769" lon="8.532595380683771"><ele>307.0</ele><time>2026-04-27T11:47:23.957Z</time></trkpt><trkpt lat="39.59773093594707" lon="8.532655820264669"><ele>307.0</ele><time>2026-04-27T11:47:24.957Z</time></trkpt><trkpt lat="39.5976515174274" lon="8.532685256503806"><ele>307.0</ele><time>2026-04-27T11:47:25.957Z</time></trkpt><trkpt lat="39.59757716335632" lon="8.532656231605388"><ele>307.0</ele><time>2026-04-27T11:47:26.957Z</time></trkpt><trkpt lat="39.59750687450645" lon="8.532593721357536"><ele>307.0</ele><time>2026-04-27T11:47:27.957Z</time></trkpt><trkpt lat="39.597441697546785" lon="8.532495537186447"><ele>307.0</ele><time>2026-04-27T11:47:28.957Z</time></trkpt><trkpt lat="39.59739086261589" lon="8.532370724995797"><ele>307.0</ele><time>2026-04-27T11:47:29.957Z</time></trkpt><trkpt lat="39.5973462505941" lon="8.532246916652616"><ele>307.0</ele><time>2026-04-27T11:47:30.957Z</time></trkpt><trkpt lat="39.597285333646035" lon="8.532124601974962"><ele>307.0</ele><time>2026-04-27T11:47:31.957Z</time></trkpt><trkpt lat="39.59719669713451" lon="8.532007878182805"><ele>307.0</ele><time>2026-04-27T11:47:32.957Z</time></trkpt><trkpt lat="39.59709003723291" lon="8.531900417741443"><ele>307.25</ele><time>2026-04-27T11:47:33.957Z</time></trkpt><trkpt lat="39.59699062018955" lon="8.53180029743726"><ele>307.5</ele><time>2026-04-27T11:47:34.957Z</time></trkpt><trkpt lat="39.59689216060954" lon="8.531678232125044"><ele>307.75</ele><time>2026-04-27T11:47:35.957Z</time></trkpt><trkpt lat="39.59681410795649" lon="8.531529300506499"><ele>308.0</ele><time>2026-04-27T11:47:36.957Z</time></trkpt><trkpt lat="39.596721627558686" lon="8.53139760392898"><ele>308.0</ele><time>2026-04-27T11:47:37.957Z</time></trkpt><trkpt lat="39.59664627117061" lon="8.53125941547844"><ele>308.0</ele><time>2026-04-27T11:47:38.957Z</time></trkpt><trkpt lat="39.59654100937949" lon="8.531147750514645"><ele>308.0</ele><time>2026-04-27T11:47:39.957Z</time></trkpt><trkpt lat="39.59641507939723" lon="8.531057231897858"><ele>308.0</ele><time>2026-04-27T11:47:40.957Z</time></trkpt><trkpt lat="39.596285586605994" lon="8.530975363826617"><ele>306.2</ele><time>2026-04-27T11:47:41.957Z</time></trkpt><trkpt lat="39.596169788828824" lon="8.530897888462674"><ele>304.4</ele><time>2026-04-27T11:47:42.957Z</time></trkpt><trkpt lat="39.596063884475726" lon="8.530831879953189"><ele>302.59999999999997</ele><time>2026-04-27T11:47:43.957Z</time></trkpt><trkpt lat="39.595973025818274" lon="8.530801046248909"><ele>300.8</ele><time>2026-04-27T11:47:44.957Z</time></trkpt><trkpt lat="39.59587120664259" lon="8.530812093740215"><ele>299.0</ele><time>2026-04-27T11:47:45.957Z</time></trkpt><trkpt lat="39.595761182634824" lon="8.530855962945683"><ele>299.0</ele><time>2026-04-27T11:47:46.957Z</time></trkpt><trkpt lat="39.59563788338444" lon="8.530894221653838"><ele>299.0</ele><time>2026-04-27T11:47:47.957Z</time></trkpt><trkpt lat="39.595509394873126" lon="8.530944570442143"><ele>299.0</ele><time>2026-04-27T11:47:48.957Z</time></trkpt><trkpt lat="39.59537190153809" lon="8.530993926551972"><ele>299.0</ele><time>2026-04-27T11:47:49.957Z</time></trkpt><trkpt lat="39.59523285154624" lon="8.531061319406314"><ele>301.0</ele><time>2026-04-27T11:47:50.957Z</time></trkpt><trkpt lat="39.59509705008844" lon="8.531142894165505"><ele>303.0</ele><time>2026-04-27T11:47:51.957Z</time></trkpt><trkpt lat="39.594975874370064" lon="8.531245120486451"><ele>305.0</ele><time>2026-04-27T11:47:52.957Z</time></trkpt><trkpt lat="39.59485458888966" lon="8.531341575857354"><ele>307.0</ele><time>2026-04-27T11:47:53.958Z</time></trkpt><trkpt lat="39.59475412498103" lon="8.53148224964605"><ele>307.0</ele><time>2026-04-27T11:47:54.958Z</time></trkpt><trkpt lat="39.5946640658973" lon="8.531644222671268"><ele>307.0</ele><time>2026-04-27T11:47:55.958Z</time></trkpt><trkpt lat="39.594572412017904" lon="8.531801665759504"><ele>307.0</ele><time>2026-04-27T11:47:56.958Z</time></trkpt><trkpt lat="39.59448555740054" lon="8.531945661562835"><ele>307.0</ele><time>2026-04-27T11:47:57.958Z</time></trkpt><trkpt lat="39.59440361595349" lon="8.532081511819221"><ele>305.8</ele><time>2026-04-27T11:47:58.958Z</time></trkpt><trkpt lat="39.5943257135237" lon="8.532220787935398"><ele>304.6</ele><time>2026-04-27T11:47:59.958Z</time></trkpt><trkpt lat="39.594262204059824" lon="8.532328358446758"><ele>303.40000000000003</ele><time>2026-04-27T11:48:00.958Z</time></trkpt><trkpt lat="39.594219353578175" lon="8.53242178421217"><ele>302.2</ele><time>2026-04-27T11:48:01.958Z</time></trkpt><trkpt lat="39.59415693661328" lon="8.53245990075338"><ele>301.0</ele><time>2026-04-27T11:48:02.958Z</time></trkpt><trkpt lat="39.594080467011985" lon="8.532468766867813"><ele>301.0</ele><time>2026-04-27T11:48:03.958Z</time></trkpt><trkpt lat="39.5940033071611" lon="8.532437980662266"><ele>301.0</ele><time>2026-04-27T11:48:04.958Z</time></trkpt><trkpt lat="39.59393562701279" lon="8.532354881509148"><ele>301.0</ele><time>2026-04-27T11:48:05.958Z</time></trkpt><trkpt lat="39.593887081924464" lon="8.532240958405454"><ele>301.0</ele><time>2026-04-27T11:48:06.958Z</time></trkpt><trkpt lat="39.593846586469574" lon="8.53212424798199"><ele>301.0</ele><time>2026-04-27T11:48:07.958Z</time></trkpt><trkpt lat="39.593795626064896" lon="8.531999155972033"><ele>302.0</ele><time>2026-04-27T11:48:08.958Z</time></trkpt><trkpt lat="39.59373680894295" lon="8.531857293000698"><ele>303.0</ele><time>2026-04-27T11:48:09.958Z</time></trkpt><trkpt lat="39.59368162453658" lon="8.531718183048095"><ele>304.0</ele><time>2026-04-27T11:48:10.958Z</time></trkpt><trkpt lat="39.59363290091092" lon="8.53159839766027"><ele>305.0</ele><time>2026-04-27T11:48:11.958Z</time></trkpt><trkpt lat="39.59358283104643" lon="8.531466934602093"><ele>305.0</ele><time>2026-04-27T11:48:12.956Z</time></trkpt><trkpt lat="39.59354455140666" lon="8.531334870749387"><ele>305.0</ele><time>2026-04-27T11:48:13.957Z</time></trkpt><trkpt lat="39.593519722589384" lon="8.531180915346395"><ele>305.0</ele><time>2026-04-27T11:48:14.957Z</time></trkpt><trkpt lat="39.59349263348689" lon="8.531025169554479"><ele>305.0</ele><time>2026-04-27T11:48:15.956Z</time></trkpt><trkpt lat="39.59345526048618" lon="8.530877591622616"><ele>303.0</ele><time>2026-04-27T11:48:16.956Z</time></trkpt><trkpt lat="39.5933967741059" lon="8.530735789106815"><ele>301.0</ele><time>2026-04-27T11:48:17.956Z</time></trkpt><trkpt lat="39.59333323195089" lon="8.530611840278665"><ele>299.0</ele><time>2026-04-27T11:48:18.957Z</time></trkpt><trkpt lat="39.59325846180638" lon="8.530497516966074"><ele>297.0</ele><time>2026-04-27T11:48:19.957Z</time></trkpt><trkpt lat="39.59317420137419" lon="8.530365999670773"><ele>295.0</ele><time>2026-04-27T11:48:20.957Z</time></trkpt><trkpt lat="39.59311678431628" lon="8.530216421563356"><ele>293.0</ele><time>2026-04-27T11:48:21.957Z</time></trkpt><trkpt lat="39.59312086525883" lon="8.530037142572468"><ele>291.0</ele><time>2026-04-27T11:48:22.956Z</time></trkpt><trkpt lat="39.593111660415126" lon="8.529826096916032"><ele>289.0</ele><time>2026-04-27T11:48:23.956Z</time></trkpt><trkpt lat="39.59305437666509" lon="8.529613320490231"><ele>288.25</ele><time>2026-04-27T11:48:25.957Z</time></trkpt><trkpt lat="39.59299175301511" lon="8.529466547926088"><ele>287.5</ele><time>2026-04-27T11:48:26.957Z</time></trkpt><trkpt lat="39.59290483929499" lon="8.529324671104867"><ele>286.75</ele><time>2026-04-27T11:48:27.957Z</time></trkpt><trkpt lat="39.592814349391084" lon="8.529183673379126"><ele>286.0</ele><time>2026-04-27T11:48:28.957Z</time></trkpt><trkpt lat="39.59272092773821" lon="8.529037984668046"><ele>290.5</ele><time>2026-04-27T11:48:29.957Z</time></trkpt><trkpt lat="39.59262785982073" lon="8.528907751788415"><ele>295.0</ele><time>2026-04-27T11:48:30.957Z</time></trkpt><trkpt lat="39.59252566066968" lon="8.528804527412476"><ele>299.5</ele><time>2026-04-27T11:48:31.957Z</time></trkpt><trkpt lat="39.59241513556669" lon="8.528745821802318"><ele>304.0</ele><time>2026-04-27T11:48:32.957Z</time></trkpt><trkpt lat="39.592306762750525" lon="8.528727083696783"><ele>304.0</ele><time>2026-04-27T11:48:33.957Z</time></trkpt><trkpt lat="39.59220155078619" lon="8.528739678913452"><ele>304.0</ele><time>2026-04-27T11:48:34.957Z</time></trkpt><trkpt lat="39.59208838836277" lon="8.528777775915653"><ele>304.0</ele><time>2026-04-27T11:48:35.957Z</time></trkpt><trkpt lat="39.59196369934628" lon="8.528810589245111"><ele>304.0</ele><time>2026-04-27T11:48:36.957Z</time></trkpt><trkpt lat="39.59183449019567" lon="8.528834472297472"><ele>304.75</ele><time>2026-04-27T11:48:37.957Z</time></trkpt><trkpt lat="39.59169846183174" lon="8.528859252789392"><ele>305.5</ele><time>2026-04-27T11:48:38.957Z</time></trkpt><trkpt lat="39.5915617435036" lon="8.528885918987877"><ele>306.25</ele><time>2026-04-27T11:48:39.957Z</time></trkpt><trkpt lat="39.59141839204463" lon="8.528911200917955"><ele>307.0</ele><time>2026-04-27T11:48:40.957Z</time></trkpt><trkpt lat="39.59127372320936" lon="8.528935568857268"><ele>308.5</ele><time>2026-04-27T11:48:41.957Z</time></trkpt><trkpt lat="39.591132625569664" lon="8.528948816094692"><ele>310.0</ele><time>2026-04-27T11:48:42.957Z</time></trkpt><trkpt lat="39.590992701460316" lon="8.528946529853346"><ele>311.5</ele><time>2026-04-27T11:48:43.957Z</time></trkpt><trkpt lat="39.59086088874379" lon="8.528888626777452"><ele>313.0</ele><time>2026-04-27T11:48:44.957Z</time></trkpt><trkpt lat="39.59072826100656" lon="8.528851512426403"><ele>313.0</ele><time>2026-04-27T11:48:45.957Z</time></trkpt><trkpt lat="39.590601819003204" lon="8.528855888007545"><ele>313.0</ele><time>2026-04-27T11:48:46.957Z</time></trkpt><trkpt lat="39.590489775505475" lon="8.528866134010503"><ele>313.0</ele><time>2026-04-27T11:48:47.957Z</time></trkpt><trkpt lat="39.59036607706179" lon="8.528918663438507"><ele>313.0</ele><time>2026-04-27T11:48:48.957Z</time></trkpt><trkpt lat="39.59023217697056" lon="8.529002689446727"><ele>311.75</ele><time>2026-04-27T11:48:49.957Z</time></trkpt><trkpt lat="39.59008643608567" lon="8.529072515124241"><ele>310.5</ele><time>2026-04-27T11:48:50.957Z</time></trkpt><trkpt lat="39.5899501942731" lon="8.529163132547705"><ele>309.25</ele><time>2026-04-27T11:48:51.957Z</time></trkpt><trkpt lat="39.58983114643078" lon="8.529260782614708"><ele>308.0</ele><time>2026-04-27T11:48:52.957Z</time></trkpt><trkpt lat="39.58970198072728" lon="8.529334925515911"><ele>308.0</ele><time>2026-04-27T11:48:53.957Z</time></trkpt><trkpt lat="39.589574879260425" lon="8.529432146717744"><ele>308.0</ele><time>2026-04-27T11:48:54.957Z</time></trkpt><trkpt lat="39.589451573263425" lon="8.529515273366979"><ele>308.0</ele><time>2026-04-27T11:48:55.957Z</time></trkpt><trkpt lat="39.5893291260699" lon="8.529585853396236"><ele>308.0</ele><time>2026-04-27T11:48:56.957Z</time></trkpt><trkpt lat="39.589225269538325" lon="8.529658184820809"><ele>307.8</ele><time>2026-04-27T11:48:57.957Z</time></trkpt><trkpt lat="39.589138199841706" lon="8.529747402901235"><ele>307.6</ele><time>2026-04-27T11:48:58.957Z</time></trkpt><trkpt lat="39.58906591772898" lon="8.529850358463687"><ele>307.4</ele><time>2026-04-27T11:48:59.957Z</time></trkpt><trkpt lat="39.589025315803426" lon="8.529972092482348"><ele>307.2</ele><time>2026-04-27T11:49:00.957Z</time></trkpt><trkpt lat="39.58900500347696" lon="8.530117909484545"><ele>307.0</ele><time>2026-04-27T11:49:01.957Z</time></trkpt><trkpt lat="39.58898610205661" lon="8.53028948477678"><ele>307.5</ele><time>2026-04-27T11:49:02.957Z</time></trkpt><trkpt lat="39.5889516999415" lon="8.530471210918423"><ele>308.0</ele><time>2026-04-27T11:49:03.957Z</time></trkpt><trkpt lat="39.588923708865075" lon="8.530648202149612"><ele>308.5</ele><time>2026-04-27T11:49:04.957Z</time></trkpt><trkpt lat="39.58889034011461" lon="8.530812800404835"><ele>309.0</ele><time>2026-04-27T11:49:05.957Z</time></trkpt><trkpt lat="39.58884588004414" lon="8.530963993003931"><ele>309.0</ele><time>2026-04-27T11:49:06.957Z</time></trkpt><trkpt lat="39.5887798402822" lon="8.531117562880207"><ele>309.0</ele><time>2026-04-27T11:49:07.957Z</time></trkpt><trkpt lat="39.58868314794767" lon="8.53124944673267"><ele>309.0</ele><time>2026-04-27T11:49:08.957Z</time></trkpt><trkpt lat="39.58860109527762" lon="8.531402751730791"><ele>309.0</ele><time>2026-04-27T11:49:09.957Z</time></trkpt><trkpt lat="39.58851797879873" lon="8.531552991932038"><ele>307.8</ele><time>2026-04-27T11:49:10.957Z</time></trkpt><trkpt lat="39.58845133864654" lon="8.531714981688266"><ele>306.59999999999997</ele><time>2026-04-27T11:49:11.957Z</time></trkpt><trkpt lat="39.58840453942726" lon="8.531864451578572"><ele>305.4</ele><time>2026-04-27T11:49:12.957Z</time></trkpt><trkpt lat="39.588365316197475" lon="8.531987576163882"><ele>304.2</ele><time>2026-04-27T11:49:13.958Z</time></trkpt><trkpt lat="39.588320292714556" lon="8.532066558454824"><ele>303.0</ele><time>2026-04-27T11:49:14.958Z</time></trkpt><trkpt lat="39.58820374774852" lon="8.532075941886717"><ele>301.6</ele><time>2026-04-27T11:49:16.958Z</time></trkpt><trkpt lat="39.58813026130966" lon="8.532033054562314"><ele>300.20000000000005</ele><time>2026-04-27T11:49:17.958Z</time></trkpt><trkpt lat="39.588060515766905" lon="8.531943223938818"><ele>298.8</ele><time>2026-04-27T11:49:18.958Z</time></trkpt><trkpt lat="39.58800660718382" lon="8.531839051279489"><ele>297.40000000000003</ele><time>2026-04-27T11:49:19.958Z</time></trkpt><trkpt lat="39.58794659362123" lon="8.53172282909352"><ele>296.0</ele><time>2026-04-27T11:49:20.958Z</time></trkpt><trkpt lat="39.58787933689411" lon="8.531606039848695"><ele>296.75</ele><time>2026-04-27T11:49:21.958Z</time></trkpt><trkpt lat="39.587791846340984" lon="8.531493625916934"><ele>297.5</ele><time>2026-04-27T11:49:22.958Z</time></trkpt><trkpt lat="39.587689705632165" lon="8.531383694578977"><ele>298.25</ele><time>2026-04-27T11:49:23.958Z</time></trkpt><trkpt lat="39.58758442684067" lon="8.531280462907494"><ele>299.0</ele><time>2026-04-27T11:49:24.958Z</time></trkpt><trkpt lat="39.58747165311677" lon="8.531206331490825"><ele>296.75</ele><time>2026-04-27T11:49:25.958Z</time></trkpt><trkpt lat="39.587348299052614" lon="8.531165137027862"><ele>294.5</ele><time>2026-04-27T11:49:26.958Z</time></trkpt><trkpt lat="39.58721140345606" lon="8.531143077669626"><ele>292.25</ele><time>2026-04-27T11:49:27.958Z</time></trkpt><trkpt lat="39.587071120470824" lon="8.531115838266793"><ele>290.0</ele><time>2026-04-27T11:49:28.958Z</time></trkpt><trkpt lat="39.58691915928972" lon="8.53108363856946"><ele>290.0</ele><time>2026-04-27T11:49:29.958Z</time></trkpt><trkpt lat="39.58677364303739" lon="8.53105443861876"><ele>290.0</ele><time>2026-04-27T11:49:30.958Z</time></trkpt><trkpt lat="39.58663048566222" lon="8.531018626641918"><ele>290.0</ele><time>2026-04-27T11:49:31.958Z</time></trkpt><trkpt lat="39.586483532976644" lon="8.53098371179347"><ele>290.0</ele><time>2026-04-27T11:49:32.958Z</time></trkpt><trkpt lat="39.58634716679242" lon="8.530959820352868"><ele>290.0</ele><time>2026-04-27T11:49:33.958Z</time></trkpt><trkpt lat="39.58621339211464" lon="8.530953418169075"><ele>290.0</ele><time>2026-04-27T11:49:34.958Z</time></trkpt><trkpt lat="39.58608715781469" lon="8.53098222217003"><ele>290.0</ele><time>2026-04-27T11:49:35.958Z</time></trkpt><trkpt lat="39.585957808000806" lon="8.531040883877786"><ele>290.0</ele><time>2026-04-27T11:49:36.958Z</time></trkpt><trkpt lat="39.58582712687923" lon="8.531106334268964"><ele>291.5</ele><time>2026-04-27T11:49:37.958Z</time></trkpt><trkpt lat="39.585689062596636" lon="8.531133888022701"><ele>293.0</ele><time>2026-04-27T11:49:38.958Z</time></trkpt><trkpt lat="39.58554651132207" lon="8.531185407289755"><ele>294.5</ele><time>2026-04-27T11:49:39.958Z</time></trkpt><trkpt lat="39.58540307849762" lon="8.53121381301996"><ele>296.0</ele><time>2026-04-27T11:49:40.958Z</time></trkpt><trkpt lat="39.58526756037801" lon="8.531244774930386"><ele>298.0</ele><time>2026-04-27T11:49:41.958Z</time></trkpt><trkpt lat="39.585147119298256" lon="8.531279570496734"><ele>300.0</ele><time>2026-04-27T11:49:42.958Z</time></trkpt><trkpt lat="39.58502941909783" lon="8.531319114475654"><ele>302.0</ele><time>2026-04-27T11:49:43.958Z</time></trkpt><trkpt lat="39.58491717063286" lon="8.531402456508141"><ele>304.0</ele><time>2026-04-27T11:49:44.958Z</time></trkpt><trkpt lat="39.584799624015474" lon="8.531490346090912"><ele>304.0</ele><time>2026-04-27T11:49:45.958Z</time></trkpt><trkpt lat="39.58467860114086" lon="8.531588221392706"><ele>304.0</ele><time>2026-04-27T11:49:46.958Z</time></trkpt><trkpt lat="39.584568432139456" lon="8.53168550362569"><ele>304.0</ele><time>2026-04-27T11:49:47.958Z</time></trkpt><trkpt lat="39.58446426858464" lon="8.53180342924388"><ele>304.0</ele><time>2026-04-27T11:49:48.958Z</time></trkpt><trkpt lat="39.584371684123205" lon="8.53191496420314"><ele>304.0</ele><time>2026-04-27T11:49:49.958Z</time></trkpt><trkpt lat="39.58426345044832" lon="8.531981305293698"><ele>304.0</ele><time>2026-04-27T11:49:50.958Z</time></trkpt><trkpt lat="39.58414889471151" lon="8.532054795517288"><ele>304.0</ele><time>2026-04-27T11:49:51.958Z</time></trkpt><trkpt lat="39.58402055269348" lon="8.532076676453414"><ele>304.0</ele><time>2026-04-27T11:49:52.958Z</time></trkpt><trkpt lat="39.58389716886342" lon="8.532099499767142"><ele>304.0</ele><time>2026-04-27T11:49:53.958Z</time></trkpt><trkpt lat="39.58378409825717" lon="8.532141022758292"><ele>304.0</ele><time>2026-04-27T11:49:54.958Z</time></trkpt><trkpt lat="39.58368226096949" lon="8.532182219671096"><ele>304.0</ele><time>2026-04-27T11:49:55.958Z</time></trkpt><trkpt lat="39.58359101847694" lon="8.53227326680669"><ele>304.0</ele><time>2026-04-27T11:49:56.958Z</time></trkpt><trkpt lat="39.583531696007995" lon="8.532401993822115"><ele>304.66666666666663</ele><time>2026-04-27T11:49:57.958Z</time></trkpt><trkpt lat="39.58347982634268" lon="8.532511695562997"><ele>305.3333333333333</ele><time>2026-04-27T11:49:58.958Z</time></trkpt><trkpt lat="39.58343806412273" lon="8.532612841558262"><ele>306.0</ele><time>2026-04-27T11:49:59.958Z</time></trkpt><trkpt lat="39.58338048710384" lon="8.532695049051528"><ele>306.6666666666667</ele><time>2026-04-27T11:50:00.958Z</time></trkpt><trkpt lat="39.583331075722754" lon="8.532781847944346"><ele>307.33333333333337</ele><time>2026-04-27T11:50:01.958Z</time></trkpt><trkpt lat="39.58327113052964" lon="8.532871079211828"><ele>308.0</ele><time>2026-04-27T11:50:02.958Z</time></trkpt><trkpt lat="39.58320524071088" lon="8.532934516534638"><ele>308.0</ele><time>2026-04-27T11:50:03.958Z</time></trkpt><trkpt lat="39.583125442616264" lon="8.533020313261169"><ele>308.0</ele><time>2026-04-27T11:50:04.958Z</time></trkpt><trkpt lat="39.583055409235975" lon="8.533122763892864"><ele>308.0</ele><time>2026-04-27T11:50:05.958Z</time></trkpt><trkpt lat="39.58302652831228" lon="8.533273158454076"><ele>308.0</ele><time>2026-04-27T11:50:06.959Z</time></trkpt><trkpt lat="39.582996539818" lon="8.53340916648926"><ele>308.0</ele><time>2026-04-27T11:50:07.959Z</time></trkpt><trkpt lat="39.58297524763977" lon="8.533555345856826"><ele>308.0</ele><time>2026-04-27T11:50:08.959Z</time></trkpt><trkpt lat="39.58293911613122" lon="8.533697902076199"><ele>308.0</ele><time>2026-04-27T11:50:09.959Z</time></trkpt><trkpt lat="39.58291513822216" lon="8.533824650898058"><ele>308.0</ele><time>2026-04-27T11:50:10.959Z</time></trkpt><trkpt lat="39.582885867455786" lon="8.533933329079439"><ele>308.0</ele><time>2026-04-27T11:50:11.959Z</time></trkpt><trkpt lat="39.582852191865605" lon="8.534025851164222"><ele>308.0</ele><time>2026-04-27T11:50:12.959Z</time></trkpt><trkpt lat="39.582804425124785" lon="8.534091637314122"><ele>307.5</ele><time>2026-04-27T11:50:13.959Z</time></trkpt><trkpt lat="39.58276181536183" lon="8.534166469431572"><ele>307.0</ele><time>2026-04-27T11:50:14.959Z</time></trkpt><trkpt lat="39.58268056248493" lon="8.534163387069805"><ele>306.5</ele><time>2026-04-27T11:50:15.959Z</time></trkpt><trkpt lat="39.58260326038796" lon="8.534164139226402"><ele>306.0</ele><time>2026-04-27T11:50:16.959Z</time></trkpt><trkpt lat="39.58252756656329" lon="8.534108092390404"><ele>305.5</ele><time>2026-04-27T11:50:17.959Z</time></trkpt><trkpt lat="39.58247336222689" lon="8.534022707021691"><ele>305.0</ele><time>2026-04-27T11:50:18.958Z</time></trkpt><trkpt lat="39.58243688392671" lon="8.533908012793683"><ele>305.0</ele><time>2026-04-27T11:50:19.958Z</time></trkpt><trkpt lat="39.58240099683455" lon="8.533790971910832"><ele>305.0</ele><time>2026-04-27T11:50:20.958Z</time></trkpt><trkpt lat="39.58234460023575" lon="8.533693597997896"><ele>305.0</ele><time>2026-04-27T11:50:21.958Z</time></trkpt><trkpt lat="39.58227941140256" lon="8.533599596984997"><ele>305.0</ele><time>2026-04-27T11:50:22.958Z</time></trkpt><trkpt lat="39.58220141001918" lon="8.53350515899119"><ele>305.0</ele><time>2026-04-27T11:50:23.958Z</time></trkpt><trkpt lat="39.58213480468821" lon="8.533407319983175"><ele>305.2</ele><time>2026-04-27T11:50:24.958Z</time></trkpt><trkpt lat="39.58207017203775" lon="8.533305011051178"><ele>305.4</ele><time>2026-04-27T11:50:25.958Z</time></trkpt><trkpt lat="39.58202306849447" lon="8.533187885150927"><ele>305.6</ele><time>2026-04-27T11:50:26.958Z</time></trkpt><trkpt lat="39.581988610472514" lon="8.533066019094118"><ele>305.8</ele><time>2026-04-27T11:50:27.958Z</time></trkpt><trkpt lat="39.58195689772915" lon="8.532955550631454"><ele>306.0</ele><time>2026-04-27T11:50:28.958Z</time></trkpt><trkpt lat="39.58193445675708" lon="8.532849406602406"><ele>304.6666666666667</ele><time>2026-04-27T11:50:29.958Z</time></trkpt><trkpt lat="39.58190115654488" lon="8.53273919296444"><ele>303.3333333333333</ele><time>2026-04-27T11:50:30.958Z</time></trkpt><trkpt lat="39.58185823021223" lon="8.532642225146072"><ele>302.0</ele><time>2026-04-27T11:50:31.958Z</time></trkpt><trkpt lat="39.58179472953384" lon="8.532575786017425"><ele>300.66666666666663</ele><time>2026-04-27T11:50:32.958Z</time></trkpt><trkpt lat="39.58171743673642" lon="8.532521791148055"><ele>299.3333333333333</ele><time>2026-04-27T11:50:33.958Z</time></trkpt><trkpt lat="39.58163026759935" lon="8.532505544104577"><ele>298.0</ele><time>2026-04-27T11:50:34.958Z</time></trkpt><trkpt lat="39.5815537649455" lon="8.53252025318838"><ele>298.0</ele><time>2026-04-27T11:50:35.958Z</time></trkpt><trkpt lat="39.58149118931558" lon="8.532561362240884"><ele>298.0</ele><time>2026-04-27T11:50:36.958Z</time></trkpt><trkpt lat="39.58143871850718" lon="8.532626949552284"><ele>298.0</ele><time>2026-04-27T11:50:37.958Z</time></trkpt><trkpt lat="39.581382282327375" lon="8.532699856079626"><ele>298.0</ele><time>2026-04-27T11:50:38.958Z</time></trkpt><trkpt lat="39.58134858843582" lon="8.532786717889781"><ele>298.0</ele><time>2026-04-27T11:50:39.958Z</time></trkpt><trkpt lat="39.58132489090901" lon="8.53286741989304"><ele>298.0</ele><time>2026-04-27T11:50:40.958Z</time></trkpt><trkpt lat="39.58129363892121" lon="8.532967725679374"><ele>298.0</ele><time>2026-04-27T11:50:41.958Z</time></trkpt><trkpt lat="39.581261801607866" lon="8.533069209937526"><ele>299.3333333333333</ele><time>2026-04-27T11:50:42.958Z</time></trkpt><trkpt lat="39.58122833780871" lon="8.533175782665035"><ele>300.66666666666663</ele><time>2026-04-27T11:50:43.958Z</time></trkpt><trkpt lat="39.581198029003815" lon="8.533276641196627"><ele>302.0</ele><time>2026-04-27T11:50:44.958Z</time></trkpt><trkpt lat="39.581178443154855" lon="8.533370883080966"><ele>303.3333333333333</ele><time>2026-04-27T11:50:45.958Z</time></trkpt><trkpt lat="39.581185542674184" lon="8.533539186796773"><ele>304.6666666666667</ele><time>2026-04-27T11:50:47.958Z</time></trkpt><trkpt lat="39.58117238434693" lon="8.53362927396833"><ele>306.0</ele><time>2026-04-27T11:50:48.958Z</time></trkpt><trkpt lat="39.58117176604659" lon="8.533731416588207"><ele>306.1666666666667</ele><time>2026-04-27T11:50:49.958Z</time></trkpt><trkpt lat="39.581160813713154" lon="8.533829953556957"><ele>306.3333333333333</ele><time>2026-04-27T11:50:50.958Z</time></trkpt><trkpt lat="39.58113741515588" lon="8.533921944313107"><ele>306.5</ele><time>2026-04-27T11:50:51.958Z</time></trkpt><trkpt lat="39.58112133994789" lon="8.534005371540719"><ele>306.66666666666663</ele><time>2026-04-27T11:50:52.958Z</time></trkpt><trkpt lat="39.581112040439784" lon="8.534108471620213"><ele>306.8333333333333</ele><time>2026-04-27T11:50:54.958Z</time></trkpt><trkpt lat="39.58116406903224" lon="8.534050583670647"><ele>307.0</ele><time>2026-04-27T11:53:54.961Z</time></trkpt><trkpt lat="39.58118685366889" lon="8.533909427092505"><ele>307.0</ele><time>2026-04-27T11:53:56.961Z</time></trkpt><trkpt lat="39.58120032335014" lon="8.533743843820675"><ele>307.0</ele><time>2026-04-27T11:53:58.961Z</time></trkpt><trkpt lat="39.581205782404126" lon="8.533643154170404"><ele>307.0</ele><time>2026-04-27T11:53:59.961Z</time></trkpt><trkpt lat="39.581201599212065" lon="8.53352309646155"><ele>307.0</ele><time>2026-04-27T11:54:00.961Z</time></trkpt><trkpt lat="39.58121046272456" lon="8.533401942074345"><ele>307.0</ele><time>2026-04-27T11:54:01.961Z</time></trkpt><trkpt lat="39.58123534922575" lon="8.533275767406355"><ele>306.8</ele><time>2026-04-27T11:54:02.961Z</time></trkpt><trkpt lat="39.581282214616124" lon="8.533134582300892"><ele>306.6</ele><time>2026-04-27T11:54:03.961Z</time></trkpt><trkpt lat="39.581324494857554" lon="8.533004653401099"><ele>306.40000000000003</ele><time>2026-04-27T11:54:04.961Z</time></trkpt><trkpt lat="39.581366006862616" lon="8.532867526277593"><ele>306.2</ele><time>2026-04-27T11:54:05.961Z</time></trkpt><trkpt lat="39.58140689510244" lon="8.53274534870166"><ele>306.0</ele><time>2026-04-27T11:54:06.961Z</time></trkpt><trkpt lat="39.58146157050289" lon="8.532648688865187"><ele>304.40000000000003</ele><time>2026-04-27T11:54:07.961Z</time></trkpt><trkpt lat="39.58153226130445" lon="8.532568465708389"><ele>302.8</ele><time>2026-04-27T11:54:08.961Z</time></trkpt><trkpt lat="39.5816139683069" lon="8.53253473195964"><ele>301.20000000000005</ele><time>2026-04-27T11:54:09.961Z</time></trkpt><trkpt lat="39.58170409585253" lon="8.532537034754021"><ele>299.6</ele><time>2026-04-27T11:54:10.961Z</time></trkpt><trkpt lat="39.5817809734661" lon="8.53258948599037"><ele>298.0</ele><time>2026-04-27T11:54:11.961Z</time></trkpt><trkpt lat="39.58185384103497" lon="8.53267813610864"><ele>298.0</ele><time>2026-04-27T11:54:12.961Z</time></trkpt><trkpt lat="39.58190320449829" lon="8.53278912078786"><ele>298.0</ele><time>2026-04-27T11:54:13.961Z</time></trkpt><trkpt lat="39.581946921710426" lon="8.532932054797808"><ele>298.0</ele><time>2026-04-27T11:54:14.961Z</time></trkpt><trkpt lat="39.58197739092973" lon="8.5330813993556"><ele>298.0</ele><time>2026-04-27T11:54:15.961Z</time></trkpt><trkpt lat="39.58202592527457" lon="8.533243502316227"><ele>298.0</ele><time>2026-04-27T11:54:16.961Z</time></trkpt><trkpt lat="39.582087453386016" lon="8.533379580663604"><ele>298.0</ele><time>2026-04-27T11:54:17.961Z</time></trkpt><trkpt lat="39.58216509241665" lon="8.533505554482733"><ele>298.0</ele><time>2026-04-27T11:54:18.961Z</time></trkpt><trkpt lat="39.58225994861822" lon="8.533626969419505"><ele>298.0</ele><time>2026-04-27T11:54:19.961Z</time></trkpt><trkpt lat="39.582351481037875" lon="8.533740140296366"><ele>299.4</ele><time>2026-04-27T11:54:20.961Z</time></trkpt><trkpt lat="39.58243708764938" lon="8.533860936772818"><ele>300.8</ele><time>2026-04-27T11:54:21.961Z</time></trkpt><trkpt lat="39.582455014501654" lon="8.534022570394118"><ele>302.2</ele><time>2026-04-27T11:54:22.961Z</time></trkpt><trkpt lat="39.582517763157725" lon="8.53412892814601"><ele>303.6</ele><time>2026-04-27T11:54:23.961Z</time></trkpt><trkpt lat="39.5825907345255" lon="8.534193216936545"><ele>305.0</ele><time>2026-04-27T11:54:24.961Z</time></trkpt><trkpt lat="39.582678257094685" lon="8.534186124120822"><ele>305.0</ele><time>2026-04-27T11:54:25.961Z</time></trkpt><trkpt lat="39.58276070552307" lon="8.534174139013341"><ele>305.0</ele><time>2026-04-27T11:54:26.961Z</time></trkpt><trkpt lat="39.58283627916739" lon="8.534096912548883"><ele>305.0</ele><time>2026-04-27T11:54:27.961Z</time></trkpt><trkpt lat="39.58289725229756" lon="8.534006073156355"><ele>305.0</ele><time>2026-04-27T11:54:28.961Z</time></trkpt><trkpt lat="39.58293503068431" lon="8.533888286305997"><ele>305.0</ele><time>2026-04-27T11:54:29.961Z</time></trkpt><trkpt lat="39.58297115957363" lon="8.533747718479063"><ele>305.6</ele><time>2026-04-27T11:54:30.96Z</time></trkpt><trkpt lat="39.582999573117775" lon="8.533606394425137"><ele>306.2</ele><time>2026-04-27T11:54:31.96Z</time></trkpt><trkpt lat="39.58302640939001" lon="8.533462949237"><ele>306.8</ele><time>2026-04-27T11:54:32.96Z</time></trkpt><trkpt lat="39.58304597328631" lon="8.533329902525129"><ele>307.4</ele><time>2026-04-27T11:54:33.961Z</time></trkpt><trkpt lat="39.583086715599876" lon="8.533196228954477"><ele>308.0</ele><time>2026-04-27T11:54:34.96Z</time></trkpt><trkpt lat="39.58315455950498" lon="8.533077618646866"><ele>308.0</ele><time>2026-04-27T11:54:35.96Z</time></trkpt><trkpt lat="39.58324171506793" lon="8.532970044766683"><ele>308.0</ele><time>2026-04-27T11:54:36.96Z</time></trkpt><trkpt lat="39.583336838422206" lon="8.532844887052077"><ele>308.0</ele><time>2026-04-27T11:54:37.96Z</time></trkpt><trkpt lat="39.58343418787817" lon="8.532692923090012"><ele>308.0</ele><time>2026-04-27T11:54:38.96Z</time></trkpt><trkpt lat="39.58351615668378" lon="8.53253900403421"><ele>307.0</ele><time>2026-04-27T11:54:39.96Z</time></trkpt><trkpt lat="39.5835867490724" lon="8.53239124912435"><ele>306.0</ele><time>2026-04-27T11:54:40.961Z</time></trkpt><trkpt lat="39.58365680040074" lon="8.532277158961564"><ele>305.0</ele><time>2026-04-27T11:54:41.961Z</time></trkpt><trkpt lat="39.583751431424034" lon="8.5322010069065"><ele>304.0</ele><time>2026-04-27T11:54:42.961Z</time></trkpt><trkpt lat="39.583890201815784" lon="8.53214830148676"><ele>304.0</ele><time>2026-04-27T11:54:43.961Z</time></trkpt><trkpt lat="39.58403746242508" lon="8.532098788807572"><ele>304.0</ele><time>2026-04-27T11:54:44.961Z</time></trkpt><trkpt lat="39.58418942170891" lon="8.532052726785665"><ele>304.0</ele><time>2026-04-27T11:54:45.961Z</time></trkpt><trkpt lat="39.58432063774274" lon="8.531991488860308"><ele>304.0</ele><time>2026-04-27T11:54:46.961Z</time></trkpt><trkpt lat="39.584435061156995" lon="8.531896022500495"><ele>304.0</ele><time>2026-04-27T11:54:47.961Z</time></trkpt><trkpt lat="39.584536711253676" lon="8.531790740440536"><ele>304.0</ele><time>2026-04-27T11:54:48.961Z</time></trkpt><trkpt lat="39.584638536075346" lon="8.531677384792367"><ele>304.0</ele><time>2026-04-27T11:54:49.961Z</time></trkpt><trkpt lat="39.58475235660497" lon="8.5315729442896"><ele>304.0</ele><time>2026-04-27T11:54:50.961Z</time></trkpt><trkpt lat="39.58487601223035" lon="8.531475735199603"><ele>304.0</ele><time>2026-04-27T11:54:51.961Z</time></trkpt><trkpt lat="39.58499811267388" lon="8.531396957920155"><ele>304.0</ele><time>2026-04-27T11:54:52.961Z</time></trkpt><trkpt lat="39.58512065666791" lon="8.531337369979203"><ele>304.0</ele><time>2026-04-27T11:54:53.961Z</time></trkpt><trkpt lat="39.58523217724522" lon="8.531294868457566"><ele>304.0</ele><time>2026-04-27T11:54:54.961Z</time></trkpt><trkpt lat="39.58534798821238" lon="8.531252269136704"><ele>302.0</ele><time>2026-04-27T11:54:55.961Z</time></trkpt><trkpt lat="39.58547340521218" lon="8.531218801010956"><ele>300.0</ele><time>2026-04-27T11:54:56.961Z</time></trkpt><trkpt lat="39.585612189497496" lon="8.531186712612929"><ele>298.0</ele><time>2026-04-27T11:54:57.961Z</time></trkpt><trkpt lat="39.58575502447571" lon="8.531147281569618"><ele>296.0</ele><time>2026-04-27T11:54:58.961Z</time></trkpt><trkpt lat="39.585898456015755" lon="8.531092895511213"><ele>296.0</ele><time>2026-04-27T11:54:59.961Z</time></trkpt><trkpt lat="39.58603300352107" lon="8.531038991605604"><ele>296.0</ele><time>2026-04-27T11:55:00.961Z</time></trkpt><trkpt lat="39.586162196541316" lon="8.531001693552449"><ele>296.0</ele><time>2026-04-27T11:55:01.961Z</time></trkpt><trkpt lat="39.58629753704745" lon="8.530985795816292"><ele>296.0</ele><time>2026-04-27T11:55:02.961Z</time></trkpt><trkpt lat="39.586440047097405" lon="8.531015998809387"><ele>294.0</ele><time>2026-04-27T11:55:03.961Z</time></trkpt><trkpt lat="39.58659492753265" lon="8.53104858451223"><ele>292.0</ele><time>2026-04-27T11:55:04.961Z</time></trkpt><trkpt lat="39.5867492982727" lon="8.53108328378961"><ele>290.0</ele><time>2026-04-27T11:55:05.961Z</time></trkpt><trkpt lat="39.586908818409135" lon="8.531117748963602"><ele>289.33333333333337</ele><time>2026-04-27T11:55:06.961Z</time></trkpt><trkpt lat="39.58707355676751" lon="8.531152242117134"><ele>288.6666666666667</ele><time>2026-04-27T11:55:07.961Z</time></trkpt><trkpt lat="39.587242278920975" lon="8.531187567893383"><ele>288.0</ele><time>2026-04-27T11:55:08.961Z</time></trkpt><trkpt lat="39.5873985968139" lon="8.53122644250148"><ele>290.0</ele><time>2026-04-27T11:55:09.961Z</time></trkpt><trkpt lat="39.58756082637614" lon="8.53131025892034"><ele>292.0</ele><time>2026-04-27T11:55:11.961Z</time></trkpt><trkpt lat="39.587652442643744" lon="8.531416285209826"><ele>294.0</ele><time>2026-04-27T11:55:12.961Z</time></trkpt><trkpt lat="39.58775467138907" lon="8.531525750828832"><ele>296.0</ele><time>2026-04-27T11:55:13.961Z</time></trkpt><trkpt lat="39.58785427260614" lon="8.531641674988276"><ele>296.0</ele><time>2026-04-27T11:55:14.961Z</time></trkpt><trkpt lat="39.58793718282147" lon="8.531774063268834"><ele>296.0</ele><time>2026-04-27T11:55:15.961Z</time></trkpt><trkpt lat="39.58801196255799" lon="8.531914816201299"><ele>296.0</ele><time>2026-04-27T11:55:16.961Z</time></trkpt><trkpt lat="39.588079944487035" lon="8.53203858143267"><ele>296.0</ele><time>2026-04-27T11:55:17.961Z</time></trkpt><trkpt lat="39.58816851275059" lon="8.532122987311526"><ele>296.0</ele><time>2026-04-27T11:55:18.961Z</time></trkpt><trkpt lat="39.58825569539645" lon="8.532135845555162"><ele>296.0</ele><time>2026-04-27T11:55:19.961Z</time></trkpt><trkpt lat="39.58832370948682" lon="8.532131863630633"><ele>296.0</ele><time>2026-04-27T11:55:20.962Z</time></trkpt><trkpt lat="39.58838884620729" lon="8.532079754240248"><ele>296.0</ele><time>2026-04-27T11:55:21.962Z</time></trkpt><trkpt lat="39.588447856327505" lon="8.531990322255233"><ele>296.0</ele><time>2026-04-27T11:55:22.962Z</time></trkpt><trkpt lat="39.5884806178963" lon="8.531881099586698"><ele>296.0</ele><time>2026-04-27T11:55:23.962Z</time></trkpt><trkpt lat="39.588506904269835" lon="8.531754830764067"><ele>296.0</ele><time>2026-04-27T11:55:24.962Z</time></trkpt><trkpt lat="39.58854794792659" lon="8.53161074589254"><ele>296.0</ele><time>2026-04-27T11:55:25.962Z</time></trkpt><trkpt lat="39.58860710689084" lon="8.53147376082773"><ele>296.0</ele><time>2026-04-27T11:55:26.962Z</time></trkpt><trkpt lat="39.588691773597624" lon="8.531342278968364"><ele>296.0</ele><time>2026-04-27T11:55:27.962Z</time></trkpt><trkpt lat="39.588777242290796" lon="8.531205108714133"><ele>299.25</ele><time>2026-04-27T11:55:28.962Z</time></trkpt><trkpt lat="39.588856368336295" lon="8.531064574495003"><ele>302.5</ele><time>2026-04-27T11:55:29.962Z</time></trkpt><trkpt lat="39.58891990501502" lon="8.530904112033546"><ele>305.75</ele><time>2026-04-27T11:55:30.962Z</time></trkpt><trkpt lat="39.58896507579668" lon="8.53072910540143"><ele>309.0</ele><time>2026-04-27T11:55:31.962Z</time></trkpt><trkpt lat="39.588998637215504" lon="8.530546748780926"><ele>308.5</ele><time>2026-04-27T11:55:32.962Z</time></trkpt><trkpt lat="39.589012144396676" lon="8.530316834308593"><ele>308.0</ele><time>2026-04-27T11:55:33.962Z</time></trkpt><trkpt lat="39.58903497941096" lon="8.530142285953582"><ele>307.5</ele><time>2026-04-27T11:55:34.962Z</time></trkpt><trkpt lat="39.5890684792448" lon="8.529989199014404"><ele>307.0</ele><time>2026-04-27T11:55:35.962Z</time></trkpt><trkpt lat="39.58910117857643" lon="8.529863518796006"><ele>307.0</ele><time>2026-04-27T11:55:36.962Z</time></trkpt><trkpt lat="39.58913835423843" lon="8.529774679991867"><ele>307.0</ele><time>2026-04-27T11:55:37.963Z</time></trkpt><trkpt lat="39.58918207117971" lon="8.529681029237905"><ele>307.0</ele><time>2026-04-27T11:55:39.963Z</time></trkpt><trkpt lat="39.58910634387109" lon="8.529611532052103"><ele>307.0</ele><time>2026-04-27T11:55:42.963Z</time></trkpt><trkpt lat="39.58901477984443" lon="8.52954361268502"><ele>307.0</ele><time>2026-04-27T11:55:54.964Z</time></trkpt><trkpt lat="39.58890587711571" lon="8.529446811114173"><ele>307.16666666666663</ele><time>2026-04-27T11:55:56.965Z</time></trkpt><trkpt lat="39.588839488588626" lon="8.529391384948845"><ele>307.3333333333333</ele><time>2026-04-27T11:55:57.965Z</time></trkpt><trkpt lat="39.58876652716828" lon="8.529320719280172"><ele>307.5</ele><time>2026-04-27T11:55:58.965Z</time></trkpt><trkpt lat="39.58870782011777" lon="8.529253708993407"><ele>307.6666666666667</ele><time>2026-04-27T11:55:59.965Z</time></trkpt><trkpt lat="39.58865620132599" lon="8.529173770376778"><ele>307.83333333333337</ele><time>2026-04-27T11:56:00.965Z</time></trkpt><trkpt lat="39.5886365327976" lon="8.529092925189513"><ele>308.0</ele><time>2026-04-27T11:56:01.965Z</time></trkpt><trkpt lat="39.58863330695063" lon="8.52897605664269"><ele>308.0</ele><time>2026-04-27T11:56:02.965Z</time></trkpt><trkpt lat="39.58860366438445" lon="8.528876770595597"><ele>308.0</ele><time>2026-04-27T11:56:03.965Z</time></trkpt><trkpt lat="39.588580075974384" lon="8.528756885120163"><ele>308.0</ele><time>2026-04-27T11:56:04.965Z</time></trkpt><trkpt lat="39.58855028487604" lon="8.528664476437243"><ele>308.0</ele><time>2026-04-27T11:56:05.965Z</time></trkpt><trkpt lat="39.5885025043561" lon="8.528573385076617"><ele>308.0</ele><time>2026-04-27T11:56:06.965Z</time></trkpt><trkpt lat="39.58845983012082" lon="8.528497453012804"><ele>308.0</ele><time>2026-04-27T11:56:07.965Z</time></trkpt><trkpt lat="39.58839521580765" lon="8.528432458638518"><ele>307.33333333333337</ele><time>2026-04-27T11:56:08.965Z</time></trkpt><trkpt lat="39.58832521069836" lon="8.528382216889764"><ele>306.6666666666667</ele><time>2026-04-27T11:56:09.965Z</time></trkpt><trkpt lat="39.588263654778885" lon="8.528309842964644"><ele>306.0</ele><time>2026-04-27T11:56:10.965Z</time></trkpt><trkpt lat="39.58818278608739" lon="8.528253361516732"><ele>305.3333333333333</ele><time>2026-04-27T11:56:11.965Z</time></trkpt><trkpt lat="39.58808625626409" lon="8.528211674601847"><ele>304.66666666666663</ele><time>2026-04-27T11:56:12.965Z</time></trkpt><trkpt lat="39.58800099923821" lon="8.528170646007204"><ele>304.0</ele><time>2026-04-27T11:56:13.965Z</time></trkpt><trkpt lat="39.587935489547434" lon="8.52813705560366"><ele>304.0</ele><time>2026-04-27T11:56:14.965Z</time></trkpt><trkpt lat="39.58786298033278" lon="8.528110234500586"><ele>304.0</ele><time>2026-04-27T11:56:15.965Z</time></trkpt><trkpt lat="39.58781686141705" lon="8.528052929713617"><ele>304.0</ele><time>2026-04-27T11:56:16.965Z</time></trkpt><trkpt lat="39.58778532359436" lon="8.527919412397596"><ele>304.0</ele><time>2026-04-27T11:56:18.965Z</time></trkpt><trkpt lat="39.5878116287882" lon="8.527834727855653"><ele>304.0</ele><time>2026-04-27T11:56:19.965Z</time></trkpt><trkpt lat="39.587836649783895" lon="8.527724765157632"><ele>304.0</ele><time>2026-04-27T11:56:20.965Z</time></trkpt><trkpt lat="39.587882144865624" lon="8.527644177930801"><ele>303.3333333333333</ele><time>2026-04-27T11:56:21.965Z</time></trkpt><trkpt lat="39.58793999752482" lon="8.52754237732598"><ele>302.66666666666663</ele><time>2026-04-27T11:56:22.966Z</time></trkpt><trkpt lat="39.58798165448737" lon="8.527440572754083"><ele>302.0</ele><time>2026-04-27T11:56:23.966Z</time></trkpt><trkpt lat="39.58801058397147" lon="8.527344963644456"><ele>301.3333333333333</ele><time>2026-04-27T11:56:24.966Z</time></trkpt><trkpt lat="39.58803343291862" lon="8.527246656455496"><ele>300.6666666666667</ele><time>2026-04-27T11:56:25.966Z</time></trkpt><trkpt lat="39.58806017435949" lon="8.52713745759902"><ele>300.0</ele><time>2026-04-27T11:56:26.966Z</time></trkpt><trkpt lat="39.58809429533644" lon="8.527038297050378"><ele>302.4</ele><time>2026-04-27T11:56:27.966Z</time></trkpt><trkpt lat="39.58813648875581" lon="8.526930159436933"><ele>304.8</ele><time>2026-04-27T11:56:28.966Z</time></trkpt><trkpt lat="39.58817774549581" lon="8.52683732298556"><ele>307.2</ele><time>2026-04-27T11:56:29.966Z</time></trkpt><trkpt lat="39.588231167756" lon="8.52672408056389"><ele>309.6</ele><time>2026-04-27T11:56:30.966Z</time></trkpt><trkpt lat="39.58828188214195" lon="8.526618917328449"><ele>312.0</ele><time>2026-04-27T11:56:31.966Z</time></trkpt><trkpt lat="39.58833673577091" lon="8.526523334151813"><ele>312.0</ele><time>2026-04-27T11:56:32.966Z</time></trkpt><trkpt lat="39.58839081120443" lon="8.52642889018701"><ele>312.0</ele><time>2026-04-27T11:56:33.966Z</time></trkpt><trkpt lat="39.5884395896396" lon="8.526341180194787"><ele>312.0</ele><time>2026-04-27T11:56:34.966Z</time></trkpt><trkpt lat="39.588474182026914" lon="8.526239964843233"><ele>312.0</ele><time>2026-04-27T11:56:35.966Z</time></trkpt><trkpt lat="39.58850503667387" lon="8.526139249963618"><ele>312.0</ele><time>2026-04-27T11:56:36.964Z</time></trkpt><trkpt lat="39.58852613342447" lon="8.526052080841966"><ele>312.0</ele><time>2026-04-27T11:56:37.963Z</time></trkpt><trkpt lat="39.588535517577135" lon="8.525951931077595"><ele>312.1666666666667</ele><time>2026-04-27T11:56:39.964Z</time></trkpt><trkpt lat="39.58847233215513" lon="8.525850321074461"><ele>312.3333333333333</ele><time>2026-04-27T11:56:41.964Z</time></trkpt><trkpt lat="39.588406354933916" lon="8.525805907216776"><ele>312.5</ele><time>2026-04-27T11:56:42.964Z</time></trkpt><trkpt lat="39.588345084564104" lon="8.52574312623497"><ele>312.66666666666663</ele><time>2026-04-27T11:56:43.964Z</time></trkpt><trkpt lat="39.58826655054731" lon="8.525700687995824"><ele>312.8333333333333</ele><time>2026-04-27T11:56:44.964Z</time></trkpt><trkpt lat="39.58818409642979" lon="8.525669360477952"><ele>313.0</ele><time>2026-04-27T11:56:45.964Z</time></trkpt><trkpt lat="39.58812181609279" lon="8.525646404088128"><ele>313.0</ele><time>2026-04-27T11:56:46.963Z</time></trkpt><trkpt lat="39.58806220697228" lon="8.525615475578867"><ele>313.0</ele><time>2026-04-27T11:56:47.963Z</time></trkpt><trkpt lat="39.58801150526536" lon="8.525498214149026"><ele>313.0</ele><time>2026-04-27T11:56:49.964Z</time></trkpt><trkpt lat="39.58803272819925" lon="8.525400045020376"><ele>313.0</ele><time>2026-04-27T11:56:50.964Z</time></trkpt><trkpt lat="39.58806404824058" lon="8.525308522632821"><ele>313.0</ele><time>2026-04-27T11:56:51.964Z</time></trkpt><trkpt lat="39.58810195414195" lon="8.525210964980493"><ele>313.0</ele><time>2026-04-27T11:56:52.964Z</time></trkpt><trkpt lat="39.588138907424764" lon="8.525109286404248"><ele>313.6</ele><time>2026-04-27T11:56:53.964Z</time></trkpt><trkpt lat="39.58817486739314" lon="8.52498249236488"><ele>314.20000000000005</ele><time>2026-04-27T11:56:54.964Z</time></trkpt><trkpt lat="39.58820796063638" lon="8.524835150777816"><ele>314.8</ele><time>2026-04-27T11:56:55.964Z</time></trkpt><trkpt lat="39.588231126103906" lon="8.524693876484866"><ele>315.40000000000003</ele><time>2026-04-27T11:56:56.964Z</time></trkpt><trkpt lat="39.58825552008647" lon="8.524582064596311"><ele>316.0</ele><time>2026-04-27T11:56:57.964Z</time></trkpt><trkpt lat="39.58829274757285" lon="8.52451342206942"><ele>316.00000000000006</ele><time>2026-04-27T11:56:58.964Z</time></trkpt><trkpt lat="39.58835931621817" lon="8.524480756499324"><ele>316.0</ele><time>2026-04-27T11:56:59.964Z</time></trkpt><trkpt lat="39.58839964057948" lon="8.524410545807346"><ele>316.0</ele><time>2026-04-27T11:57:00.964Z</time></trkpt><trkpt lat="39.5884519962342" lon="8.524338974871634"><ele>316.0</ele><time>2026-04-27T11:57:01.964Z</time></trkpt><trkpt lat="39.58847220363515" lon="8.52425305395551"><ele>316.0</ele><time>2026-04-27T11:57:02.964Z</time></trkpt><trkpt lat="39.5884810203355" lon="8.524156340939355"><ele>316.00000000000006</ele><time>2026-04-27T11:57:03.964Z</time></trkpt><trkpt lat="39.58849037142135" lon="8.524051759968955"><ele>316.0</ele><time>2026-04-27T11:57:04.964Z</time></trkpt><trkpt lat="39.58852501549035" lon="8.523973505145037"><ele>316.0</ele><time>2026-04-27T11:57:05.964Z</time></trkpt><trkpt lat="39.58858925566984" lon="8.523901748049335"><ele>316.0</ele><time>2026-04-27T11:57:06.964Z</time></trkpt><trkpt lat="39.588671442849694" lon="8.523866790195417"><ele>316.0</ele><time>2026-04-27T11:57:07.964Z</time></trkpt><trkpt lat="39.58874057322449" lon="8.523824960064955"><ele>316.0</ele><time>2026-04-27T11:57:08.964Z</time></trkpt><trkpt lat="39.58879352016332" lon="8.523757646805102"><ele>316.0</ele><time>2026-04-27T11:57:09.964Z</time></trkpt><trkpt lat="39.58885243443215" lon="8.523665787291412"><ele>316.0</ele><time>2026-04-27T11:57:10.964Z</time></trkpt><trkpt lat="39.58890144781705" lon="8.523556955686267"><ele>314.2</ele><time>2026-04-27T11:57:11.964Z</time></trkpt><trkpt lat="39.588945895899315" lon="8.523430115293644"><ele>312.40000000000003</ele><time>2026-04-27T11:57:12.964Z</time></trkpt><trkpt lat="39.58899122250858" lon="8.523297117407825"><ele>310.6</ele><time>2026-04-27T11:57:13.965Z</time></trkpt><trkpt lat="39.58903978580852" lon="8.523171867473623"><ele>308.8</ele><time>2026-04-27T11:57:14.965Z</time></trkpt><trkpt lat="39.58910129489271" lon="8.523041136708194"><ele>307.0</ele><time>2026-04-27T11:57:15.965Z</time></trkpt><trkpt lat="39.589144637224436" lon="8.522904248906492"><ele>310.0</ele><time>2026-04-27T11:57:16.965Z</time></trkpt><trkpt lat="39.58918691205044" lon="8.522773991062536"><ele>313.0</ele><time>2026-04-27T11:57:17.965Z</time></trkpt><trkpt lat="39.58920547344261" lon="8.52266067090438"><ele>316.0</ele><time>2026-04-27T11:57:18.965Z</time></trkpt><trkpt lat="39.58921829661578" lon="8.522558904771781"><ele>319.0</ele><time>2026-04-27T11:57:19.965Z</time></trkpt><trkpt lat="39.589222576160644" lon="8.522459051203061"><ele>322.0</ele><time>2026-04-27T11:57:20.965Z</time></trkpt><trkpt lat="39.58918473631768" lon="8.522317622591178"><ele>322.0</ele><time>2026-04-27T11:57:22.965Z</time></trkpt><trkpt lat="39.5891546332163" lon="8.522238487927922"><ele>322.0</ele><time>2026-04-27T11:57:23.965Z</time></trkpt><trkpt lat="39.58911498608514" lon="8.522161146980217"><ele>322.0</ele><time>2026-04-27T11:57:24.965Z</time></trkpt><trkpt lat="39.58906060030452" lon="8.52209766603968"><ele>322.0</ele><time>2026-04-27T11:57:25.965Z</time></trkpt><trkpt lat="39.58900449217463" lon="8.522023083482798"><ele>322.0</ele><time>2026-04-27T11:57:26.965Z</time></trkpt><trkpt lat="39.588945327009796" lon="8.521951199807617"><ele>322.0</ele><time>2026-04-27T11:57:27.965Z</time></trkpt><trkpt lat="39.5888788191899" lon="8.5218737807348"><ele>322.66666666666663</ele><time>2026-04-27T11:57:28.965Z</time></trkpt><trkpt lat="39.58881486662777" lon="8.521802051918195"><ele>323.3333333333333</ele><time>2026-04-27T11:57:29.965Z</time></trkpt><trkpt lat="39.588756227580724" lon="8.52172918599833"><ele>324.0</ele><time>2026-04-27T11:57:30.965Z</time></trkpt><trkpt lat="39.58870002855017" lon="8.521670745586954"><ele>324.6666666666667</ele><time>2026-04-27T11:57:31.965Z</time></trkpt><trkpt lat="39.58862456675487" lon="8.52159476561597"><ele>325.33333333333337</ele><time>2026-04-27T11:57:33.965Z</time></trkpt><trkpt lat="39.58854321332124" lon="8.52161177354175"><ele>326.0</ele><time>2026-04-27T11:57:34.965Z</time></trkpt><trkpt lat="39.58848238678695" lon="8.521680502915181"><ele>327.1666666666667</ele><time>2026-04-27T11:57:35.965Z</time></trkpt><trkpt lat="39.58845701247495" lon="8.521784769187349"><ele>328.33333333333337</ele><time>2026-04-27T11:57:36.965Z</time></trkpt><trkpt lat="39.58841612776378" lon="8.521863828847515"><ele>329.5</ele><time>2026-04-27T11:57:37.965Z</time></trkpt><trkpt lat="39.58837096768" lon="8.521936084617167"><ele>330.6666666666667</ele><time>2026-04-27T11:57:38.965Z</time></trkpt><trkpt lat="39.58831723858396" lon="8.522008458985193"><ele>331.8333333333333</ele><time>2026-04-27T11:57:39.965Z</time></trkpt><trkpt lat="39.588255189057335" lon="8.522088757719938"><ele>333.0</ele><time>2026-04-27T11:57:40.965Z</time></trkpt><trkpt lat="39.58819999043257" lon="8.522154960202187"><ele>334.6666666666667</ele><time>2026-04-27T11:57:41.965Z</time></trkpt><trkpt lat="39.588148897377074" lon="8.52221527403563"><ele>336.3333333333333</ele><time>2026-04-27T11:57:42.965Z</time></trkpt><trkpt lat="39.588047777824634" lon="8.522350418911433"><ele>338.0</ele><time>2026-04-27T11:57:44.965Z</time></trkpt><trkpt lat="39.58798228575038" lon="8.522381696203713"><ele>339.66666666666663</ele><time>2026-04-27T11:57:45.965Z</time></trkpt><trkpt lat="39.58791704237574" lon="8.52237699745488"><ele>341.3333333333333</ele><time>2026-04-27T11:57:46.965Z</time></trkpt><trkpt lat="39.58784414712631" lon="8.52237330507896"><ele>343.0</ele><time>2026-04-27T11:57:47.965Z</time></trkpt><trkpt lat="39.587763184384066" lon="8.5223411593192"><ele>344.16666666666663</ele><time>2026-04-27T11:57:48.965Z</time></trkpt><trkpt lat="39.58767583840613" lon="8.522350432653162"><ele>345.3333333333333</ele><time>2026-04-27T11:57:49.965Z</time></trkpt><trkpt lat="39.587589843160686" lon="8.522318752332286"><ele>346.5</ele><time>2026-04-27T11:57:50.965Z</time></trkpt><trkpt lat="39.58750247481853" lon="8.52230874914818"><ele>347.6666666666667</ele><time>2026-04-27T11:57:51.965Z</time></trkpt><trkpt lat="39.58741392846695" lon="8.522310804303943"><ele>348.83333333333337</ele><time>2026-04-27T11:57:52.965Z</time></trkpt><trkpt lat="39.587329786273855" lon="8.52232522847744"><ele>350.0</ele><time>2026-04-27T11:57:53.965Z</time></trkpt><trkpt lat="39.58726145855112" lon="8.522390187496827"><ele>350.0</ele><time>2026-04-27T11:57:54.965Z</time></trkpt><trkpt lat="39.587197976260775" lon="8.522440416031987"><ele>350.0</ele><time>2026-04-27T11:57:55.965Z</time></trkpt><trkpt lat="39.58713851383205" lon="8.522505988656853"><ele>350.0</ele><time>2026-04-27T11:57:56.965Z</time></trkpt><trkpt lat="39.58708245054167" lon="8.522573449906979"><ele>350.0</ele><time>2026-04-27T11:57:57.965Z</time></trkpt><trkpt lat="39.587018921346754" lon="8.522637817658705"><ele>350.0</ele><time>2026-04-27T11:57:58.965Z</time></trkpt><trkpt lat="39.58695282623548" lon="8.52270829263791"><ele>350.0</ele><time>2026-04-27T11:57:59.965Z</time></trkpt><trkpt lat="39.58687643490377" lon="8.522754635922663"><ele>352.4</ele><time>2026-04-27T11:58:00.965Z</time></trkpt><trkpt lat="39.58680598811114" lon="8.522812806593945"><ele>354.8</ele><time>2026-04-27T11:58:01.965Z</time></trkpt><trkpt lat="39.58673613832607" lon="8.522857918464224"><ele>357.20000000000005</ele><time>2026-04-27T11:58:02.965Z</time></trkpt><trkpt lat="39.58666472208465" lon="8.522895129785901"><ele>359.6</ele><time>2026-04-27T11:58:03.965Z</time></trkpt><trkpt lat="39.58657041921341" lon="8.52291779364903"><ele>362.0</ele><time>2026-04-27T11:58:05.966Z</time></trkpt><trkpt lat="39.58652156862556" lon="8.522751331612072"><ele>362.0</ele><time>2026-04-27T11:58:07.966Z</time></trkpt><trkpt lat="39.58653289344273" lon="8.5226649086566"><ele>362.0</ele><time>2026-04-27T11:58:08.966Z</time></trkpt><trkpt lat="39.58654119663304" lon="8.522574704113035"><ele>362.0</ele><time>2026-04-27T11:58:09.966Z</time></trkpt><trkpt lat="39.58653386365727" lon="8.522481560550393"><ele>362.0</ele><time>2026-04-27T11:58:10.966Z</time></trkpt><trkpt lat="39.586500021347476" lon="8.52236602213877"><ele>362.0</ele><time>2026-04-27T11:58:11.966Z</time></trkpt><trkpt lat="39.58645233546135" lon="8.522246695979916"><ele>362.0</ele><time>2026-04-27T11:58:12.966Z</time></trkpt><trkpt lat="39.58639819704262" lon="8.52212459789823"><ele>361.5</ele><time>2026-04-27T11:58:13.966Z</time></trkpt><trkpt lat="39.58633250939107" lon="8.522021818485522"><ele>361.0</ele><time>2026-04-27T11:58:14.966Z</time></trkpt><trkpt lat="39.586248054884116" lon="8.52190156894947"><ele>360.5</ele><time>2026-04-27T11:58:15.966Z</time></trkpt><trkpt lat="39.5861651121352" lon="8.5217916698373"><ele>360.0</ele><time>2026-04-27T11:58:16.966Z</time></trkpt><trkpt lat="39.5860775317837" lon="8.52169692676038"><ele>364.2</ele><time>2026-04-27T11:58:17.966Z</time></trkpt><trkpt lat="39.58599508905064" lon="8.521609358542946"><ele>368.4</ele><time>2026-04-27T11:58:18.966Z</time></trkpt><trkpt lat="39.58589875148471" lon="8.521540611514824"><ele>372.6</ele><time>2026-04-27T11:58:19.966Z</time></trkpt><trkpt lat="39.58580979687049" lon="8.521493268741455"><ele>376.8</ele><time>2026-04-27T11:58:20.966Z</time></trkpt><trkpt lat="39.58574967676827" lon="8.5214551601978"><ele>381.0</ele><time>2026-04-27T11:58:21.966Z</time></trkpt><trkpt lat="39.58570493655497" lon="8.52133207898322"><ele>381.0</ele><time>2026-04-27T11:58:23.966Z</time></trkpt><trkpt lat="39.58573286657072" lon="8.521257842506607"><ele>381.0</ele><time>2026-04-27T11:58:24.966Z</time></trkpt><trkpt lat="39.585768912539606" lon="8.521168275104042"><ele>381.0</ele><time>2026-04-27T11:58:25.966Z</time></trkpt><trkpt lat="39.5858057238863" lon="8.521067347299823"><ele>381.0</ele><time>2026-04-27T11:58:26.966Z</time></trkpt><trkpt lat="39.585827771764336" lon="8.520953213688315"><ele>381.0</ele><time>2026-04-27T11:58:27.966Z</time></trkpt><trkpt lat="39.58581638907913" lon="8.520854190354564"><ele>381.0</ele><time>2026-04-27T11:58:28.966Z</time></trkpt><trkpt lat="39.5857877687994" lon="8.520764399841598"><ele>380.8</ele><time>2026-04-27T11:58:29.966Z</time></trkpt><trkpt lat="39.58573498970332" lon="8.520668313061787"><ele>380.6</ele><time>2026-04-27T11:58:30.966Z</time></trkpt><trkpt lat="39.58567727268696" lon="8.520582430256896"><ele>380.4</ele><time>2026-04-27T11:58:31.966Z</time></trkpt><trkpt lat="39.58560940181236" lon="8.520502340974327"><ele>380.2</ele><time>2026-04-27T11:58:32.966Z</time></trkpt><trkpt lat="39.58555124659844" lon="8.520432487167383"><ele>380.0</ele><time>2026-04-27T11:58:33.966Z</time></trkpt><trkpt lat="39.58551815910742" lon="8.520308547796882"><ele>381.6666666666667</ele><time>2026-04-27T11:58:35.966Z</time></trkpt><trkpt lat="39.585568164070175" lon="8.520226027989976"><ele>383.33333333333337</ele><time>2026-04-27T11:58:36.966Z</time></trkpt><trkpt lat="39.585613972172226" lon="8.520159677103837"><ele>385.0</ele><time>2026-04-27T11:58:37.966Z</time></trkpt><trkpt lat="39.58568022043949" lon="8.520107142884894"><ele>386.6666666666667</ele><time>2026-04-27T11:58:38.966Z</time></trkpt><trkpt lat="39.58576541852985" lon="8.520044501796603"><ele>388.3333333333333</ele><time>2026-04-27T11:58:39.966Z</time></trkpt><trkpt lat="39.58585238878559" lon="8.519977125302669"><ele>390.0</ele><time>2026-04-27T11:58:40.966Z</time></trkpt><trkpt lat="39.58594481582739" lon="8.519887930167169"><ele>390.0</ele><time>2026-04-27T11:58:41.966Z</time></trkpt><trkpt lat="39.58602069380654" lon="8.519768048093345"><ele>390.0</ele><time>2026-04-27T11:58:42.964Z</time></trkpt><trkpt lat="39.586103492469626" lon="8.519651965476738"><ele>390.0</ele><time>2026-04-27T11:58:43.964Z</time></trkpt><trkpt lat="39.58618381835467" lon="8.519525200803477"><ele>390.0</ele><time>2026-04-27T11:58:44.965Z</time></trkpt><trkpt lat="39.58626692750639" lon="8.51942302573774"><ele>389.2</ele><time>2026-04-27T11:58:45.964Z</time></trkpt><trkpt lat="39.58635483154523" lon="8.51932695484165"><ele>388.4</ele><time>2026-04-27T11:58:46.964Z</time></trkpt><trkpt lat="39.58644497095694" lon="8.519250065739987"><ele>387.6</ele><time>2026-04-27T11:58:47.964Z</time></trkpt><trkpt lat="39.586507412196106" lon="8.519171293496791"><ele>386.8</ele><time>2026-04-27T11:58:48.964Z</time></trkpt><trkpt lat="39.586537778682775" lon="8.519086047421457"><ele>386.0</ele><time>2026-04-27T11:58:49.964Z</time></trkpt><trkpt lat="39.586551028695354" lon="8.51895750930734"><ele>385.99999999999994</ele><time>2026-04-27T11:58:51.964Z</time></trkpt><trkpt lat="39.586495234519646" lon="8.518896237609217"><ele>386.0</ele><time>2026-04-27T11:58:52.964Z</time></trkpt><trkpt lat="39.586443498053505" lon="8.5188447925835"><ele>386.0</ele><time>2026-04-27T11:58:53.964Z</time></trkpt><trkpt lat="39.58638191734778" lon="8.518812632524089"><ele>386.0</ele><time>2026-04-27T11:58:54.964Z</time></trkpt><trkpt lat="39.586297812617936" lon="8.518801705312738"><ele>385.99999999999994</ele><time>2026-04-27T11:58:55.965Z</time></trkpt><trkpt lat="39.586206772771355" lon="8.518802256656775"><ele>386.0</ele><time>2026-04-27T11:58:56.965Z</time></trkpt><trkpt lat="39.586119525314956" lon="8.518798585229739"><ele>388.0</ele><time>2026-04-27T11:58:57.965Z</time></trkpt><trkpt lat="39.58602637414214" lon="8.518773741590632"><ele>390.0</ele><time>2026-04-27T11:58:58.965Z</time></trkpt><trkpt lat="39.585939279469635" lon="8.51873474285556"><ele>392.0</ele><time>2026-04-27T11:58:59.965Z</time></trkpt><trkpt lat="39.58584479706603" lon="8.518696817895233"><ele>394.0</ele><time>2026-04-27T11:59:00.965Z</time></trkpt><trkpt lat="39.585737974132265" lon="8.518665905567579"><ele>396.0</ele><time>2026-04-27T11:59:01.965Z</time></trkpt><trkpt lat="39.585630890485916" lon="8.518659036439583"><ele>396.0</ele><time>2026-04-27T11:59:02.965Z</time></trkpt><trkpt lat="39.58552314150598" lon="8.518665339847912"><ele>396.0</ele><time>2026-04-27T11:59:03.965Z</time></trkpt><trkpt lat="39.585418258767916" lon="8.518667349941145"><ele>396.0</ele><time>2026-04-27T11:59:04.965Z</time></trkpt><trkpt lat="39.58531732470689" lon="8.518638696744723"><ele>396.0</ele><time>2026-04-27T11:59:05.965Z</time></trkpt><trkpt lat="39.58522910806942" lon="8.518577408411675"><ele>396.0</ele><time>2026-04-27T11:59:06.965Z</time></trkpt><trkpt lat="39.58513532731442" lon="8.51849708153406"><ele>399.25</ele><time>2026-04-27T11:59:07.965Z</time></trkpt><trkpt lat="39.58503918249394" lon="8.518422200131123"><ele>402.5</ele><time>2026-04-27T11:59:08.965Z</time></trkpt><trkpt lat="39.58493594849648" lon="8.518339826195627"><ele>405.75</ele><time>2026-04-27T11:59:09.965Z</time></trkpt><trkpt lat="39.58483699651613" lon="8.518238925043049"><ele>409.0</ele><time>2026-04-27T11:59:10.965Z</time></trkpt><trkpt lat="39.58474693918336" lon="8.518138246882637"><ele>409.0</ele><time>2026-04-27T11:59:11.965Z</time></trkpt><trkpt lat="39.58465473150711" lon="8.51803234134583"><ele>409.0</ele><time>2026-04-27T11:59:12.965Z</time></trkpt><trkpt lat="39.58457164050452" lon="8.517955430201454"><ele>409.0</ele><time>2026-04-27T11:59:13.965Z</time></trkpt><trkpt lat="39.58449096080741" lon="8.517890210681376"><ele>409.0</ele><time>2026-04-27T11:59:14.965Z</time></trkpt><trkpt lat="39.58441892979486" lon="8.517829401137266"><ele>409.0</ele><time>2026-04-27T11:59:15.965Z</time></trkpt><trkpt lat="39.58437252557412" lon="8.51777219045997"><ele>408.33333333333337</ele><time>2026-04-27T11:59:16.965Z</time></trkpt><trkpt lat="39.58433013173689" lon="8.517648319001145"><ele>407.6666666666667</ele><time>2026-04-27T11:59:18.965Z</time></trkpt><trkpt lat="39.58432678940992" lon="8.517564853234607"><ele>407.0</ele><time>2026-04-27T11:59:19.965Z</time></trkpt><trkpt lat="39.58431970472423" lon="8.517458519492948"><ele>406.33333333333337</ele><time>2026-04-27T11:59:20.965Z</time></trkpt><trkpt lat="39.58431229114605" lon="8.517354928772624"><ele>405.6666666666667</ele><time>2026-04-27T11:59:21.965Z</time></trkpt><trkpt lat="39.58430116133775" lon="8.517238458572931"><ele>405.0</ele><time>2026-04-27T11:59:22.965Z</time></trkpt><trkpt lat="39.58428756102654" lon="8.517134439350041"><ele>404.8333333333333</ele><time>2026-04-27T11:59:23.965Z</time></trkpt><trkpt lat="39.58428302617407" lon="8.517036129777434"><ele>404.66666666666663</ele><time>2026-04-27T11:59:24.965Z</time></trkpt><trkpt lat="39.58426292337095" lon="8.516953125510348"><ele>404.5</ele><time>2026-04-27T11:59:25.965Z</time></trkpt><trkpt lat="39.58423107029861" lon="8.516805603279677"><ele>404.3333333333333</ele><time>2026-04-27T11:59:27.965Z</time></trkpt><trkpt lat="39.58421837498697" lon="8.516645568056383"><ele>404.16666666666663</ele><time>2026-04-27T11:59:29.965Z</time></trkpt><trkpt lat="39.584224146902194" lon="8.516563114349502"><ele>404.0</ele><time>2026-04-27T11:59:30.965Z</time></trkpt><trkpt lat="39.58423220620635" lon="8.516481404227498"><ele>403.99999999999994</ele><time>2026-04-27T11:59:31.965Z</time></trkpt><trkpt lat="39.58423227245433" lon="8.51638310916142"><ele>404.0</ele><time>2026-04-27T11:59:32.965Z</time></trkpt><trkpt lat="39.58423164657055" lon="8.516272313722958"><ele>404.0</ele><time>2026-04-27T11:59:33.965Z</time></trkpt><trkpt lat="39.58422866975883" lon="8.516157824168603"><ele>404.0</ele><time>2026-04-27T11:59:34.965Z</time></trkpt><trkpt lat="39.58423338015243" lon="8.516068007889096"><ele>403.99999999999994</ele><time>2026-04-27T11:59:35.966Z</time></trkpt><trkpt lat="39.58423049744221" lon="8.51596548694033"><ele>404.0</ele><time>2026-04-27T11:59:36.966Z</time></trkpt><trkpt lat="39.58421226612346" lon="8.515853718494707"><ele>402.66666666666663</ele><time>2026-04-27T11:59:37.966Z</time></trkpt><trkpt lat="39.584190145340344" lon="8.51574431739774"><ele>401.3333333333333</ele><time>2026-04-27T11:59:38.966Z</time></trkpt><trkpt lat="39.58416982930077" lon="8.515630397167014"><ele>400.0</ele><time>2026-04-27T11:59:39.966Z</time></trkpt><trkpt lat="39.58414409135589" lon="8.515519865789615"><ele>398.66666666666663</ele><time>2026-04-27T11:59:40.966Z</time></trkpt><trkpt lat="39.58411880067739" lon="8.515418893769118"><ele>397.3333333333333</ele><time>2026-04-27T11:59:41.966Z</time></trkpt><trkpt lat="39.58409760242132" lon="8.515315116227374"><ele>396.0</ele><time>2026-04-27T11:59:42.966Z</time></trkpt><trkpt lat="39.58406928469845" lon="8.515223273289292"><ele>393.8</ele><time>2026-04-27T11:59:43.966Z</time></trkpt><trkpt lat="39.58403156335354" lon="8.515067476402853"><ele>391.6</ele><time>2026-04-27T11:59:45.966Z</time></trkpt><trkpt lat="39.58401006027654" lon="8.514925681742405"><ele>389.4</ele><time>2026-04-27T11:59:47.966Z</time></trkpt><trkpt lat="39.583984316641605" lon="8.514777134979086"><ele>387.2</ele><time>2026-04-27T11:59:49.966Z</time></trkpt><trkpt lat="39.583958428682735" lon="8.514689242197116"><ele>385.0</ele><time>2026-04-27T11:59:52.966Z</time></trkpt><trkpt lat="39.58385774446748" lon="8.514737148212065"><ele>385.00000000000006</ele><time>2026-04-27T11:59:55.966Z</time></trkpt><trkpt lat="39.58379611783896" lon="8.514858652921134"><ele>385.0</ele><time>2026-04-27T11:59:57.966Z</time></trkpt><trkpt lat="39.58375260284198" lon="8.514936133190158"><ele>385.0</ele><time>2026-04-27T11:59:58.966Z</time></trkpt><trkpt lat="39.58370493774839" lon="8.515009954346125"><ele>385.0</ele><time>2026-04-27T11:59:59.966Z</time></trkpt><trkpt lat="39.5836539752948" lon="8.515088392293556"><ele>385.00000000000006</ele><time>2026-04-27T12:00:00.966Z</time></trkpt><trkpt lat="39.58361546361953" lon="8.51517190478281"><ele>385.0</ele><time>2026-04-27T12:00:01.966Z</time></trkpt><trkpt lat="39.5835913043701" lon="8.515251956504915"><ele>386.00000000000006</ele><time>2026-04-27T12:00:02.966Z</time></trkpt><trkpt lat="39.58357134883889" lon="8.51539677138888"><ele>387.0</ele><time>2026-04-27T12:00:04.966Z</time></trkpt><trkpt lat="39.58355628764936" lon="8.515490167525954"><ele>388.0</ele><time>2026-04-27T12:00:05.966Z</time></trkpt><trkpt lat="39.583528123627524" lon="8.515578904116095"><ele>389.0</ele><time>2026-04-27T12:00:06.966Z</time></trkpt><trkpt lat="39.58348528751813" lon="8.515643467932087"><ele>390.00000000000006</ele><time>2026-04-27T12:00:07.966Z</time></trkpt><trkpt lat="39.58343530982771" lon="8.51569995922376"><ele>391.0</ele><time>2026-04-27T12:00:08.966Z</time></trkpt><trkpt lat="39.58338364297688" lon="8.5157506553098"><ele>391.00000000000006</ele><time>2026-04-27T12:00:09.966Z</time></trkpt><trkpt lat="39.583345722593" lon="8.515823986778692"><ele>391.0</ele><time>2026-04-27T12:00:10.966Z</time></trkpt><trkpt lat="39.583294554377794" lon="8.515874406697627"><ele>391.0</ele><time>2026-04-27T12:00:11.966Z</time></trkpt><trkpt lat="39.58323299008994" lon="8.515913848726859"><ele>391.0</ele><time>2026-04-27T12:00:12.966Z</time></trkpt><trkpt lat="39.58318557600674" lon="8.515967892592233"><ele>391.00000000000006</ele><time>2026-04-27T12:00:13.966Z</time></trkpt><trkpt lat="39.5831179688742" lon="8.51607852884782"><ele>391.0</ele><time>2026-04-27T12:00:15.966Z</time></trkpt><trkpt lat="39.58308745478099" lon="8.516240244371481"><ele>391.33333333333337</ele><time>2026-04-27T12:00:17.966Z</time></trkpt><trkpt lat="39.58310809880549" lon="8.516341722058963"><ele>391.6666666666667</ele><time>2026-04-27T12:00:18.966Z</time></trkpt><trkpt lat="39.58313139041249" lon="8.516430783113124"><ele>392.0</ele><time>2026-04-27T12:00:19.966Z</time></trkpt><trkpt lat="39.583157399138734" lon="8.516514406563019"><ele>392.33333333333337</ele><time>2026-04-27T12:00:20.966Z</time></trkpt><trkpt lat="39.58320002628312" lon="8.516606437928909"><ele>392.6666666666667</ele><time>2026-04-27T12:00:21.966Z</time></trkpt><trkpt lat="39.583242180132345" lon="8.516683586713219"><ele>393.0</ele><time>2026-04-27T12:00:22.966Z</time></trkpt><trkpt lat="39.5833222545744" lon="8.516775807497206"><ele>393.0</ele><time>2026-04-27T12:00:24.966Z</time></trkpt><trkpt lat="39.58337137481257" lon="8.516858893788735"><ele>393.0</ele><time>2026-04-27T12:00:25.966Z</time></trkpt><trkpt lat="39.58344158014039" lon="8.516904098468169"><ele>393.0</ele><time>2026-04-27T12:00:26.967Z</time></trkpt><trkpt lat="39.58350072195664" lon="8.51696316291524"><ele>393.0</ele><time>2026-04-27T12:00:27.967Z</time></trkpt><trkpt lat="39.58356993457249" lon="8.517004336735786"><ele>393.0</ele><time>2026-04-27T12:00:28.967Z</time></trkpt><trkpt lat="39.58364717625055" lon="8.517051992816748"><ele>393.0</ele><time>2026-04-27T12:00:29.967Z</time></trkpt><trkpt lat="39.583729539881865" lon="8.517107262776882"><ele>395.4</ele><time>2026-04-27T12:00:30.967Z</time></trkpt><trkpt lat="39.58380675997127" lon="8.517160931091638"><ele>397.79999999999995</ele><time>2026-04-27T12:00:31.967Z</time></trkpt><trkpt lat="39.583880309680765" lon="8.51721350442877"><ele>400.2</ele><time>2026-04-27T12:00:32.967Z</time></trkpt><trkpt lat="39.58394683818772" lon="8.517267481526744"><ele>402.6</ele><time>2026-04-27T12:00:33.967Z</time></trkpt><trkpt lat="39.5840342412673" lon="8.517360276370308"><ele>405.0</ele><time>2026-04-27T12:00:35.967Z</time></trkpt><trkpt lat="39.584061687993724" lon="8.517497432052846"><ele>405.0</ele><time>2026-04-27T12:00:37.967Z</time></trkpt><trkpt lat="39.58406401839645" lon="8.517660558368592"><ele>405.0</ele><time>2026-04-27T12:00:39.967Z</time></trkpt><trkpt lat="39.584070670806675" lon="8.517755910244476"><ele>405.0</ele><time>2026-04-27T12:00:40.967Z</time></trkpt><trkpt lat="39.58406330659372" lon="8.517857942359257"><ele>405.0</ele><time>2026-04-27T12:00:41.967Z</time></trkpt><trkpt lat="39.584020830871246" lon="8.517941653108807"><ele>405.0</ele><time>2026-04-27T12:00:42.967Z</time></trkpt><trkpt lat="39.583998786743265" lon="8.518025436268651"><ele>405.0</ele><time>2026-04-27T12:00:43.967Z</time></trkpt><trkpt lat="39.5839805618702" lon="8.518157914306395"><ele>406.8</ele><time>2026-04-27T12:00:45.967Z</time></trkpt><trkpt lat="39.58404516480366" lon="8.518244122249465"><ele>408.6</ele><time>2026-04-27T12:00:47.967Z</time></trkpt><trkpt lat="39.58416579467032" lon="8.518185963581862"><ele>410.4</ele><time>2026-04-27T12:00:49.964Z</time></trkpt><trkpt lat="39.584221098301775" lon="8.518110469323908"><ele>412.2</ele><time>2026-04-27T12:00:50.964Z</time></trkpt><trkpt lat="39.58425478133606" lon="8.518007318640406"><ele>414.0</ele><time>2026-04-27T12:00:51.964Z</time></trkpt><trkpt lat="39.58431619404738" lon="8.517952316088563"><ele>412.5</ele><time>2026-04-27T12:00:52.965Z</time></trkpt><trkpt lat="39.584394137796245" lon="8.517874849120561"><ele>411.0</ele><time>2026-04-27T12:00:54.965Z</time></trkpt><trkpt lat="39.58441812253797" lon="8.517794464192148"><ele>409.5</ele><time>2026-04-27T12:02:19.966Z</time></trkpt><trkpt lat="39.58437548122612" lon="8.517713812772872"><ele>408.0</ele><time>2026-04-27T12:02:21.966Z</time></trkpt><trkpt lat="39.5843340125757" lon="8.517598103239282"><ele>406.5</ele><time>2026-04-27T12:02:23.966Z</time></trkpt><trkpt lat="39.58432758952653" lon="8.517515250385545"><ele>405.0</ele><time>2026-04-27T12:02:24.966Z</time></trkpt><trkpt lat="39.58432495797793" lon="8.517408710425993"><ele>405.0</ele><time>2026-04-27T12:02:25.966Z</time></trkpt><trkpt lat="39.58431593192435" lon="8.51730179106858"><ele>405.0</ele><time>2026-04-27T12:02:26.967Z</time></trkpt><trkpt lat="39.584303696816725" lon="8.517186980221714"><ele>405.0</ele><time>2026-04-27T12:02:27.967Z</time></trkpt><trkpt lat="39.584292592774496" lon="8.517079937102508"><ele>405.0</ele><time>2026-04-27T12:02:28.967Z</time></trkpt><trkpt lat="39.584272939514314" lon="8.516973930108534"><ele>405.0</ele><time>2026-04-27T12:02:29.967Z</time></trkpt><trkpt lat="39.584248656754525" lon="8.516880175796855"><ele>405.0</ele><time>2026-04-27T12:02:30.967Z</time></trkpt><trkpt lat="39.58423070564117" lon="8.516768640687586"><ele>404.8333333333333</ele><time>2026-04-27T12:02:31.967Z</time></trkpt><trkpt lat="39.58422093757986" lon="8.516661323821666"><ele>404.66666666666663</ele><time>2026-04-27T12:02:32.967Z</time></trkpt><trkpt lat="39.58422636385514" lon="8.516541436015293"><ele>404.5</ele><time>2026-04-27T12:02:33.967Z</time></trkpt><trkpt lat="39.58423105385678" lon="8.516423953384878"><ele>404.3333333333333</ele><time>2026-04-27T12:02:34.967Z</time></trkpt><trkpt lat="39.58423031814988" lon="8.51631846350946"><ele>404.16666666666663</ele><time>2026-04-27T12:02:35.967Z</time></trkpt><trkpt lat="39.58423659586527" lon="8.516221436071593"><ele>404.0</ele><time>2026-04-27T12:02:36.967Z</time></trkpt><trkpt lat="39.58422841062233" lon="8.516107991266002"><ele>402.4</ele><time>2026-04-27T12:02:37.967Z</time></trkpt><trkpt lat="39.58422203713037" lon="8.515992472425674"><ele>400.79999999999995</ele><time>2026-04-27T12:02:38.967Z</time></trkpt><trkpt lat="39.58420989520599" lon="8.51587768469284"><ele>399.20000000000005</ele><time>2026-04-27T12:02:39.967Z</time></trkpt><trkpt lat="39.5841925369881" lon="8.515751265216174"><ele>397.6</ele><time>2026-04-27T12:02:40.967Z</time></trkpt><trkpt lat="39.5841715974758" lon="8.51563175114568"><ele>396.0</ele><time>2026-04-27T12:02:41.967Z</time></trkpt><trkpt lat="39.58414370698379" lon="8.515523389522668"><ele>396.0</ele><time>2026-04-27T12:02:42.967Z</time></trkpt><trkpt lat="39.584119942078345" lon="8.515418429802555"><ele>396.0</ele><time>2026-04-27T12:02:43.967Z</time></trkpt><trkpt lat="39.584092004778896" lon="8.515321227138097"><ele>396.0</ele><time>2026-04-27T12:02:44.967Z</time></trkpt><trkpt lat="39.58406824821739" lon="8.515217540565587"><ele>396.0</ele><time>2026-04-27T12:02:45.967Z</time></trkpt><trkpt lat="39.584044171094774" lon="8.515126545856969"><ele>396.0</ele><time>2026-04-27T12:02:46.967Z</time></trkpt><trkpt lat="39.58402287186299" lon="8.515035562205851"><ele>396.0</ele><time>2026-04-27T12:02:47.967Z</time></trkpt><trkpt lat="39.5840042470005" lon="8.514950036595604"><ele>394.1666666666667</ele><time>2026-04-27T12:02:48.967Z</time></trkpt><trkpt lat="39.58397485633808" lon="8.514805410868792"><ele>392.33333333333337</ele><time>2026-04-27T12:02:50.967Z</time></trkpt><trkpt lat="39.58394493562488" lon="8.514706489225086"><ele>390.5</ele><time>2026-04-27T12:02:52.967Z</time></trkpt><trkpt lat="39.583873678163435" lon="8.514692725268025"><ele>388.6666666666667</ele><time>2026-04-27T12:02:56.966Z</time></trkpt><trkpt lat="39.58383026517047" lon="8.51475908335042"><ele>386.83333333333337</ele><time>2026-04-27T12:02:58.965Z</time></trkpt><trkpt lat="39.58377301838399" lon="8.514878061654464"><ele>385.0</ele><time>2026-04-27T12:03:00.966Z</time></trkpt><trkpt lat="39.58373303788054" lon="8.514944137960251"><ele>385.00000000000006</ele><time>2026-04-27T12:03:01.966Z</time></trkpt><trkpt lat="39.58369126008453" lon="8.515008984090361"><ele>385.0</ele><time>2026-04-27T12:03:02.966Z</time></trkpt><trkpt lat="39.5836502792492" lon="8.515073867119364"><ele>385.0</ele><time>2026-04-27T12:03:03.966Z</time></trkpt><trkpt lat="39.58361464869213" lon="8.515142953391088"><ele>385.0</ele><time>2026-04-27T12:03:04.966Z</time></trkpt><trkpt lat="39.58358570791621" lon="8.515219949851812"><ele>385.00000000000006</ele><time>2026-04-27T12:03:05.966Z</time></trkpt><trkpt lat="39.583568768602944" lon="8.515370285846233"><ele>385.0</ele><time>2026-04-27T12:03:07.966Z</time></trkpt><trkpt lat="39.58355792217347" lon="8.515504144353628"><ele>385.0</ele><time>2026-04-27T12:03:09.966Z</time></trkpt><trkpt lat="39.5834938136479" lon="8.515504769338479"><ele>385.0</ele><time>2026-04-27T12:03:14.966Z</time></trkpt><trkpt lat="39.58352142532873" lon="8.515357595347115"><ele>385.0</ele><time>2026-04-27T12:03:17.966Z</time></trkpt><trkpt lat="39.5835312270987" lon="8.515276438775631"><ele>385.0</ele><time>2026-04-27T12:03:18.966Z</time></trkpt><trkpt lat="39.58364061413672" lon="8.51515398162307"><ele>385.0</ele><time>2026-04-27T12:03:20.966Z</time></trkpt><trkpt lat="39.58369524859695" lon="8.515062022908484"><ele>385.0</ele><time>2026-04-27T12:03:22.966Z</time></trkpt><trkpt lat="39.583616216634596" lon="8.514899315007902"><ele>385.0</ele><time>2026-04-27T12:03:23.966Z</time></trkpt><trkpt lat="39.58365242761356" lon="8.514815424873605"><ele>385.0</ele><time>2026-04-27T12:03:24.966Z</time></trkpt><trkpt lat="39.58368322541351" lon="8.51474149586486"><ele>385.0</ele><time>2026-04-27T12:03:25.966Z</time></trkpt><trkpt lat="39.58372920979287" lon="8.51459848724251"><ele>385.0</ele><time>2026-04-27T12:03:27.966Z</time></trkpt><trkpt lat="39.58376539642082" lon="8.514443341997046"><ele>384.0</ele><time>2026-04-27T12:03:29.966Z</time></trkpt><trkpt lat="39.58378493174676" lon="8.514357659625874"><ele>383.0</ele><time>2026-04-27T12:03:30.966Z</time></trkpt><trkpt lat="39.58379925097615" lon="8.514268120741807"><ele>382.0</ele><time>2026-04-27T12:03:31.966Z</time></trkpt><trkpt lat="39.58382256018677" lon="8.514174200340548"><ele>381.0</ele><time>2026-04-27T12:03:32.966Z</time></trkpt><trkpt lat="39.58384056704368" lon="8.514092345075817"><ele>380.0</ele><time>2026-04-27T12:03:33.966Z</time></trkpt><trkpt lat="39.58385355828027" lon="8.5140094322124"><ele>379.0</ele><time>2026-04-27T12:03:34.966Z</time></trkpt><trkpt lat="39.583870069942776" lon="8.513926719641947"><ele>378.0</ele><time>2026-04-27T12:03:35.966Z</time></trkpt><trkpt lat="39.583885962556074" lon="8.513828274509425"><ele>378.0</ele><time>2026-04-27T12:03:36.966Z</time></trkpt><trkpt lat="39.58389995325902" lon="8.513742060817975"><ele>378.0</ele><time>2026-04-27T12:03:37.966Z</time></trkpt><trkpt lat="39.58391157072647" lon="8.513657922857762"><ele>378.0</ele><time>2026-04-27T12:03:38.966Z</time></trkpt><trkpt lat="39.58393097894856" lon="8.513575727320003"><ele>378.0</ele><time>2026-04-27T12:03:39.967Z</time></trkpt><trkpt lat="39.58396650777451" lon="8.513487347899298"><ele>378.0</ele><time>2026-04-27T12:03:40.967Z</time></trkpt><trkpt lat="39.584004068506005" lon="8.513396603538375"><ele>378.0</ele><time>2026-04-27T12:03:41.967Z</time></trkpt><trkpt lat="39.58403875834586" lon="8.513302990663183"><ele>378.0</ele><time>2026-04-27T12:03:42.967Z</time></trkpt><trkpt lat="39.584073726155424" lon="8.513202350356964"><ele>377.5</ele><time>2026-04-27T12:03:43.967Z</time></trkpt><trkpt lat="39.58408522109623" lon="8.513094051097571"><ele>377.0</ele><time>2026-04-27T12:03:44.967Z</time></trkpt><trkpt lat="39.58407194013537" lon="8.512986126702952"><ele>376.5</ele><time>2026-04-27T12:03:45.967Z</time></trkpt><trkpt lat="39.58405268935284" lon="8.51288560091876"><ele>376.0</ele><time>2026-04-27T12:03:46.967Z</time></trkpt><trkpt lat="39.58404328918646" lon="8.512791273553713"><ele>375.5</ele><time>2026-04-27T12:03:47.967Z</time></trkpt><trkpt lat="39.584041476817724" lon="8.51268902947107"><ele>375.0</ele><time>2026-04-27T12:03:48.967Z</time></trkpt><trkpt lat="39.58404337195491" lon="8.512584821573304"><ele>375.0</ele><time>2026-04-27T12:03:49.967Z</time></trkpt><trkpt lat="39.58404046237975" lon="8.512499239753566"><ele>375.0</ele><time>2026-04-27T12:03:50.967Z</time></trkpt><trkpt lat="39.58399427482561" lon="8.512365735380294"><ele>375.0</ele><time>2026-04-27T12:03:52.967Z</time></trkpt><trkpt lat="39.58392338009508" lon="8.512341127994032"><ele>375.0</ele><time>2026-04-27T12:03:54.967Z</time></trkpt><trkpt lat="39.583849097961064" lon="8.512412442771863"><ele>375.0</ele><time>2026-04-27T12:03:56.967Z</time></trkpt><trkpt lat="39.583798006659414" lon="8.512462780487242"><ele>375.0</ele><time>2026-04-27T12:03:57.967Z</time></trkpt><trkpt lat="39.58373129631267" lon="8.512499435103615"><ele>372.8333333333333</ele><time>2026-04-27T12:03:58.967Z</time></trkpt><trkpt lat="39.58364868507559" lon="8.512542077536732"><ele>370.6666666666667</ele><time>2026-04-27T12:03:59.967Z</time></trkpt><trkpt lat="39.583573949572695" lon="8.512591789828141"><ele>368.5</ele><time>2026-04-27T12:04:00.967Z</time></trkpt><trkpt lat="39.583503370668375" lon="8.51264304339431"><ele>366.33333333333337</ele><time>2026-04-27T12:04:01.967Z</time></trkpt><trkpt lat="39.58343166418709" lon="8.51268216394844"><ele>364.1666666666667</ele><time>2026-04-27T12:04:02.967Z</time></trkpt><trkpt lat="39.58335107722666" lon="8.512713905577106"><ele>362.0</ele><time>2026-04-27T12:04:03.967Z</time></trkpt><trkpt lat="39.58327000924637" lon="8.5127329303746"><ele>362.0</ele><time>2026-04-27T12:04:04.967Z</time></trkpt><trkpt lat="39.58318815275746" lon="8.512742041216415"><ele>362.0</ele><time>2026-04-27T12:04:05.967Z</time></trkpt><trkpt lat="39.58310985193402" lon="8.512734416662298"><ele>362.0</ele><time>2026-04-27T12:04:06.967Z</time></trkpt><trkpt lat="39.58304491863044" lon="8.512701046180064"><ele>362.0</ele><time>2026-04-27T12:04:07.967Z</time></trkpt><trkpt lat="39.58295239254894" lon="8.512583325318817"><ele>362.0</ele><time>2026-04-27T12:04:09.967Z</time></trkpt><trkpt lat="39.582913604607306" lon="8.512498041610993"><ele>362.0</ele><time>2026-04-27T12:04:10.967Z</time></trkpt><trkpt lat="39.58288040043673" lon="8.512420133355482"><ele>362.0</ele><time>2026-04-27T12:04:11.967Z</time></trkpt><trkpt lat="39.582804487129756" lon="8.512376655983108"><ele>362.0</ele><time>2026-04-27T12:04:13.967Z</time></trkpt><trkpt lat="39.5827688347385" lon="8.512450958111273"><ele>362.0</ele><time>2026-04-27T12:04:15.967Z</time></trkpt><trkpt lat="39.58280170665266" lon="8.512570528631809"><ele>362.0</ele><time>2026-04-27T12:04:17.967Z</time></trkpt><trkpt lat="39.58284829203587" lon="8.512655059194131"><ele>362.0</ele><time>2026-04-27T12:04:18.967Z</time></trkpt><trkpt lat="39.58290175197693" lon="8.512747991298813"><ele>362.0</ele><time>2026-04-27T12:04:19.967Z</time></trkpt><trkpt lat="39.58295636815798" lon="8.512841081585323"><ele>359.6666666666667</ele><time>2026-04-27T12:04:20.967Z</time></trkpt><trkpt lat="39.58300784738464" lon="8.512914046470025"><ele>357.33333333333337</ele><time>2026-04-27T12:04:21.967Z</time></trkpt><trkpt lat="39.58307660624693" lon="8.512960152477493"><ele>355.0</ele><time>2026-04-27T12:04:22.967Z</time></trkpt><trkpt lat="39.583163187531525" lon="8.512982585390038"><ele>352.6666666666667</ele><time>2026-04-27T12:04:23.967Z</time></trkpt><trkpt lat="39.58326146153066" lon="8.512992776699551"><ele>350.3333333333333</ele><time>2026-04-27T12:04:24.967Z</time></trkpt><trkpt lat="39.58334894085746" lon="8.513009117043195"><ele>348.0</ele><time>2026-04-27T12:04:25.967Z</time></trkpt><trkpt lat="39.58341182137185" lon="8.513039107406161"><ele>348.0</ele><time>2026-04-27T12:04:26.967Z</time></trkpt><trkpt lat="39.583459885634156" lon="8.5131371633311"><ele>348.0</ele><time>2026-04-27T12:04:28.967Z</time></trkpt><trkpt lat="39.583421443883964" lon="8.513291152716237"><ele>348.0</ele><time>2026-04-27T12:04:30.968Z</time></trkpt><trkpt lat="39.583364119131126" lon="8.513368535530264"><ele>348.0</ele><time>2026-04-27T12:04:31.968Z</time></trkpt><trkpt lat="39.58329920355898" lon="8.513462396765368"><ele>348.0</ele><time>2026-04-27T12:04:32.968Z</time></trkpt><trkpt lat="39.58323920931302" lon="8.513581686065788"><ele>348.0</ele><time>2026-04-27T12:04:33.968Z</time></trkpt><trkpt lat="39.583179035247746" lon="8.513712303394353"><ele>348.0</ele><time>2026-04-27T12:04:34.968Z</time></trkpt><trkpt lat="39.583108745685266" lon="8.51383487358351"><ele>348.0</ele><time>2026-04-27T12:04:35.968Z</time></trkpt><trkpt lat="39.583034271942026" lon="8.513946239385167"><ele>348.0</ele><time>2026-04-27T12:04:36.968Z</time></trkpt><trkpt lat="39.582955207977186" lon="8.514056544362008"><ele>349.25</ele><time>2026-04-27T12:04:37.968Z</time></trkpt><trkpt lat="39.58288127855203" lon="8.51417428528839"><ele>350.5</ele><time>2026-04-27T12:04:38.968Z</time></trkpt><trkpt lat="39.58281420809018" lon="8.514302384316258"><ele>351.75</ele><time>2026-04-27T12:04:39.968Z</time></trkpt><trkpt lat="39.58276241598018" lon="8.51443720758573"><ele>353.0</ele><time>2026-04-27T12:04:40.968Z</time></trkpt><trkpt lat="39.58272135152043" lon="8.514558902395581"><ele>349.6666666666667</ele><time>2026-04-27T12:04:41.968Z</time></trkpt><trkpt lat="39.5826987856602" lon="8.514686074283581"><ele>346.33333333333337</ele><time>2026-04-27T12:04:42.968Z</time></trkpt><trkpt lat="39.58268513952348" lon="8.514812419329377"><ele>343.0</ele><time>2026-04-27T12:04:43.968Z</time></trkpt><trkpt lat="39.58265269324998" lon="8.514899316801321"><ele>339.6666666666667</ele><time>2026-04-27T12:04:44.968Z</time></trkpt><trkpt lat="39.58258484136414" lon="8.514942855716921"><ele>336.3333333333333</ele><time>2026-04-27T12:04:45.968Z</time></trkpt><trkpt lat="39.582510396788756" lon="8.514993486352205"><ele>333.0</ele><time>2026-04-27T12:04:46.968Z</time></trkpt><trkpt lat="39.58242115282014" lon="8.515049262938453"><ele>333.0</ele><time>2026-04-27T12:04:47.968Z</time></trkpt><trkpt lat="39.5823344613052" lon="8.51510432442814"><ele>333.0</ele><time>2026-04-27T12:04:48.968Z</time></trkpt><trkpt lat="39.58223176950807" lon="8.515177969261721"><ele>333.0</ele><time>2026-04-27T12:04:49.968Z</time></trkpt><trkpt lat="39.58214494897331" lon="8.515230538110519"><ele>333.0</ele><time>2026-04-27T12:04:50.968Z</time></trkpt><trkpt lat="39.582068989589615" lon="8.515285020635517"><ele>333.0</ele><time>2026-04-27T12:04:51.968Z</time></trkpt><trkpt lat="39.58199048162558" lon="8.515327611829724"><ele>330.59999999999997</ele><time>2026-04-27T12:04:52.968Z</time></trkpt><trkpt lat="39.581923079746545" lon="8.515404951462651"><ele>328.2</ele><time>2026-04-27T12:04:53.968Z</time></trkpt><trkpt lat="39.581865557587484" lon="8.515496768544248"><ele>325.8</ele><time>2026-04-27T12:04:54.968Z</time></trkpt><trkpt lat="39.58181754143942" lon="8.515591813972932"><ele>323.4</ele><time>2026-04-27T12:04:55.968Z</time></trkpt><trkpt lat="39.58177324082475" lon="8.515698941252614"><ele>321.0</ele><time>2026-04-27T12:04:56.968Z</time></trkpt><trkpt lat="39.58173983775849" lon="8.515832229429597"><ele>321.0</ele><time>2026-04-27T12:04:57.968Z</time></trkpt><trkpt lat="39.58171654409776" lon="8.515947562049583"><ele>321.0</ele><time>2026-04-27T12:04:58.968Z</time></trkpt><trkpt lat="39.58170636264832" lon="8.516061420861856"><ele>321.0</ele><time>2026-04-27T12:04:59.968Z</time></trkpt><trkpt lat="39.581712302177706" lon="8.51618419350233"><ele>321.0</ele><time>2026-04-27T12:05:00.967Z</time></trkpt><trkpt lat="39.58173144810323" lon="8.516316888468792"><ele>321.0</ele><time>2026-04-27T12:05:01.967Z</time></trkpt><trkpt lat="39.58175930612887" lon="8.516453494380713"><ele>320.6</ele><time>2026-04-27T12:05:02.967Z</time></trkpt><trkpt lat="39.58176701040921" lon="8.51659382321335"><ele>320.20000000000005</ele><time>2026-04-27T12:05:03.967Z</time></trkpt><trkpt lat="39.58181489188192" lon="8.516711438722982"><ele>319.79999999999995</ele><time>2026-04-27T12:05:04.966Z</time></trkpt><trkpt lat="39.581860171973354" lon="8.516822696552618"><ele>319.4</ele><time>2026-04-27T12:05:05.966Z</time></trkpt><trkpt lat="39.58192137108919" lon="8.516919507093817"><ele>319.0</ele><time>2026-04-27T12:05:06.966Z</time></trkpt><trkpt lat="39.581984749957854" lon="8.517011971945848"><ele>319.0</ele><time>2026-04-27T12:05:07.967Z</time></trkpt><trkpt lat="39.58202874433084" lon="8.517078733723272"><ele>319.0</ele><time>2026-04-27T12:05:08.967Z</time></trkpt><trkpt lat="39.58197864033997" lon="8.51717345856127"><ele>319.0</ele><time>2026-04-27T12:05:10.966Z</time></trkpt><trkpt lat="39.5818688953632" lon="8.517284833645054"><ele>319.0</ele><time>2026-04-27T12:05:12.967Z</time></trkpt><trkpt lat="39.581800540040426" lon="8.51739039113307"><ele>319.0</ele><time>2026-04-27T12:05:13.967Z</time></trkpt><trkpt lat="39.58172508037034" lon="8.517506382620642"><ele>319.0</ele><time>2026-04-27T12:05:14.967Z</time></trkpt><trkpt lat="39.58166375946036" lon="8.517635484862032"><ele>319.0</ele><time>2026-04-27T12:05:15.967Z</time></trkpt><trkpt lat="39.581602635711796" lon="8.517742421085135"><ele>319.0</ele><time>2026-04-27T12:05:16.967Z</time></trkpt><trkpt lat="39.58155785933602" lon="8.517828413914431"><ele>319.0</ele><time>2026-04-27T12:05:17.967Z</time></trkpt><trkpt lat="39.58147536647461" lon="8.517906823420192"><ele>319.0</ele><time>2026-04-27T12:05:19.967Z</time></trkpt><trkpt lat="39.58134328218752" lon="8.517658109137187"><ele>319.0</ele><time>2026-04-27T12:05:22.967Z</time></trkpt><trkpt lat="39.58126896545859" lon="8.517596874207946"><ele>319.0</ele><time>2026-04-27T12:05:23.967Z</time></trkpt><trkpt lat="39.58120735359577" lon="8.517531795529152"><ele>319.0</ele><time>2026-04-27T12:05:24.967Z</time></trkpt><trkpt lat="39.5811342919245" lon="8.517463805070662"><ele>319.0</ele><time>2026-04-27T12:05:25.967Z</time></trkpt><trkpt lat="39.581065922357666" lon="8.517399794333018"><ele>319.0</ele><time>2026-04-27T12:05:26.967Z</time></trkpt><trkpt lat="39.58099278984046" lon="8.517347465198196"><ele>319.0</ele><time>2026-04-27T12:05:27.967Z</time></trkpt><trkpt lat="39.58092959173779" lon="8.517321622557937"><ele>317.8333333333333</ele><time>2026-04-27T12:05:28.967Z</time></trkpt><trkpt lat="39.58086154339845" lon="8.517319735353276"><ele>316.66666666666663</ele><time>2026-04-27T12:05:29.967Z</time></trkpt><trkpt lat="39.580784035744934" lon="8.51732335372236"><ele>315.5</ele><time>2026-04-27T12:05:30.967Z</time></trkpt><trkpt lat="39.580708024982215" lon="8.517336010794475"><ele>314.3333333333333</ele><time>2026-04-27T12:05:31.967Z</time></trkpt><trkpt lat="39.58063990149837" lon="8.517380182297035"><ele>313.1666666666667</ele><time>2026-04-27T12:05:32.967Z</time></trkpt><trkpt lat="39.58057221478617" lon="8.517441528884225"><ele>312.0</ele><time>2026-04-27T12:05:33.967Z</time></trkpt><trkpt lat="39.58051904713118" lon="8.517510278115099"><ele>312.0</ele><time>2026-04-27T12:05:34.967Z</time></trkpt><trkpt lat="39.580445235339624" lon="8.517540513589479"><ele>312.0</ele><time>2026-04-27T12:05:36.967Z</time></trkpt><trkpt lat="39.58039600670323" lon="8.517428319992792"><ele>312.0</ele><time>2026-04-27T12:05:38.967Z</time></trkpt><trkpt lat="39.58034290451766" lon="8.517360579036502"><ele>312.0</ele><time>2026-04-27T12:05:39.967Z</time></trkpt><trkpt lat="39.580273977307705" lon="8.517296948318805"><ele>312.0</ele><time>2026-04-27T12:05:40.967Z</time></trkpt><trkpt lat="39.580188643629086" lon="8.5172785992643"><ele>312.0</ele><time>2026-04-27T12:05:41.967Z</time></trkpt><trkpt lat="39.58009384018089" lon="8.517264465295176"><ele>312.8</ele><time>2026-04-27T12:05:42.967Z</time></trkpt><trkpt lat="39.58000194956044" lon="8.517266846813449"><ele>313.6</ele><time>2026-04-27T12:05:43.967Z</time></trkpt><trkpt lat="39.57991266705246" lon="8.517283247779424"><ele>314.40000000000003</ele><time>2026-04-27T12:05:44.967Z</time></trkpt><trkpt lat="39.57982069040492" lon="8.517323722732801"><ele>315.2</ele><time>2026-04-27T12:05:45.967Z</time></trkpt><trkpt lat="39.579735800078026" lon="8.517363809690483"><ele>316.0</ele><time>2026-04-27T12:05:46.967Z</time></trkpt><trkpt lat="39.57964027433419" lon="8.517367992589257"><ele>316.0</ele><time>2026-04-27T12:05:47.967Z</time></trkpt><trkpt lat="39.5795451457437" lon="8.517369678632752"><ele>316.0</ele><time>2026-04-27T12:05:48.967Z</time></trkpt><trkpt lat="39.57944986973738" lon="8.517368288432591"><ele>316.0</ele><time>2026-04-27T12:05:49.967Z</time></trkpt><trkpt lat="39.57936046739211" lon="8.517355966677417"><ele>316.0</ele><time>2026-04-27T12:05:50.967Z</time></trkpt><trkpt lat="39.57927243981985" lon="8.517353932146522"><ele>316.0</ele><time>2026-04-27T12:05:51.967Z</time></trkpt><trkpt lat="39.57918353227415" lon="8.51730863085987"><ele>315.2</ele><time>2026-04-27T12:05:52.967Z</time></trkpt><trkpt lat="39.57909459412804" lon="8.51726059661678"><ele>314.40000000000003</ele><time>2026-04-27T12:05:53.967Z</time></trkpt><trkpt lat="39.57900086191198" lon="8.517207633396183"><ele>313.6</ele><time>2026-04-27T12:05:54.967Z</time></trkpt><trkpt lat="39.578909654904045" lon="8.517141416197198"><ele>312.8</ele><time>2026-04-27T12:05:55.967Z</time></trkpt><trkpt lat="39.578823401752395" lon="8.51707635666473"><ele>312.0</ele><time>2026-04-27T12:05:56.967Z</time></trkpt><trkpt lat="39.57874344142858" lon="8.517029020562742"><ele>313.8</ele><time>2026-04-27T12:05:57.967Z</time></trkpt><trkpt lat="39.57867526280818" lon="8.51698901858033"><ele>315.6</ele><time>2026-04-27T12:05:58.968Z</time></trkpt><trkpt lat="39.57859044521377" lon="8.51693460859404"><ele>317.40000000000003</ele><time>2026-04-27T12:05:59.968Z</time></trkpt><trkpt lat="39.57849563572007" lon="8.516889561541431"><ele>319.2</ele><time>2026-04-27T12:06:00.968Z</time></trkpt><trkpt lat="39.5784186235291" lon="8.516820987657884"><ele>321.0</ele><time>2026-04-27T12:06:01.968Z</time></trkpt><trkpt lat="39.57832147348377" lon="8.516789360536464"><ele>321.0</ele><time>2026-04-27T12:06:02.968Z</time></trkpt><trkpt lat="39.578232640919616" lon="8.516747211664024"><ele>321.0</ele><time>2026-04-27T12:06:03.968Z</time></trkpt><trkpt lat="39.5781367086143" lon="8.516728317520174"><ele>321.0</ele><time>2026-04-27T12:06:04.968Z</time></trkpt><trkpt lat="39.57802867294113" lon="8.51671887822834"><ele>321.0</ele><time>2026-04-27T12:06:05.968Z</time></trkpt><trkpt lat="39.57792021501072" lon="8.516710397916096"><ele>321.0</ele><time>2026-04-27T12:06:06.968Z</time></trkpt><trkpt lat="39.577812598269276" lon="8.51670033224304"><ele>319.40000000000003</ele><time>2026-04-27T12:06:07.968Z</time></trkpt><trkpt lat="39.57770825721279" lon="8.516673139859481"><ele>317.8</ele><time>2026-04-27T12:06:08.968Z</time></trkpt><trkpt lat="39.577600996355095" lon="8.516648521845642"><ele>316.20000000000005</ele><time>2026-04-27T12:06:09.968Z</time></trkpt><trkpt lat="39.57750979255283" lon="8.516617435977635"><ele>314.6</ele><time>2026-04-27T12:06:10.968Z</time></trkpt><trkpt lat="39.57741564046741" lon="8.516584436625884"><ele>313.0</ele><time>2026-04-27T12:06:11.968Z</time></trkpt><trkpt lat="39.577348664130106" lon="8.516541285452542"><ele>313.0</ele><time>2026-04-27T12:06:12.968Z</time></trkpt><trkpt lat="39.577287854092326" lon="8.516473980475135"><ele>313.0</ele><time>2026-04-27T12:06:13.968Z</time></trkpt><trkpt lat="39.577216740581356" lon="8.516407644317015"><ele>313.0</ele><time>2026-04-27T12:06:14.968Z</time></trkpt><trkpt lat="39.57713674435189" lon="8.5163587805747"><ele>313.0</ele><time>2026-04-27T12:06:15.968Z</time></trkpt><trkpt lat="39.57705291649496" lon="8.516317212116949"><ele>313.0</ele><time>2026-04-27T12:06:16.968Z</time></trkpt><trkpt lat="39.5769730609797" lon="8.516286459138842"><ele>313.0</ele><time>2026-04-27T12:06:17.968Z</time></trkpt><trkpt lat="39.57685470043975" lon="8.516216198190111"><ele>311.66666666666663</ele><time>2026-04-27T12:06:19.968Z</time></trkpt><trkpt lat="39.576780272469584" lon="8.516137638563544"><ele>310.3333333333333</ele><time>2026-04-27T12:06:21.968Z</time></trkpt><trkpt lat="39.57676596242379" lon="8.515991787693451"><ele>309.0</ele><time>2026-04-27T12:06:23.968Z</time></trkpt><trkpt lat="39.576768512984344" lon="8.51590207234964"><ele>307.6666666666667</ele><time>2026-04-27T12:06:24.968Z</time></trkpt><trkpt lat="39.576759221560884" lon="8.515788305370096"><ele>306.33333333333337</ele><time>2026-04-27T12:06:26.968Z</time></trkpt><trkpt lat="39.57668983405196" lon="8.515751118472767"><ele>305.0</ele><time>2026-04-27T12:06:29.968Z</time></trkpt><trkpt lat="39.57661549242997" lon="8.515744552069291"><ele>305.0</ele><time>2026-04-27T12:06:31.968Z</time></trkpt><trkpt lat="39.5765281293997" lon="8.515816044998568"><ele>305.0</ele><time>2026-04-27T12:06:33.968Z</time></trkpt><trkpt lat="39.57646810954089" lon="8.515871430455844"><ele>305.0</ele><time>2026-04-27T12:06:34.968Z</time></trkpt><trkpt lat="39.57640498028327" lon="8.51593135114323"><ele>305.0</ele><time>2026-04-27T12:06:35.968Z</time></trkpt><trkpt lat="39.57634860359494" lon="8.515984862550182"><ele>305.0</ele><time>2026-04-27T12:06:36.968Z</time></trkpt><trkpt lat="39.576290551911434" lon="8.516039963755256"><ele>305.0</ele><time>2026-04-27T12:06:37.968Z</time></trkpt><trkpt lat="39.57623805634571" lon="8.516110632136959"><ele>301.83333333333337</ele><time>2026-04-27T12:06:38.968Z</time></trkpt><trkpt lat="39.57618054184031" lon="8.516147209966654"><ele>298.6666666666667</ele><time>2026-04-27T12:06:39.968Z</time></trkpt><trkpt lat="39.57612144099633" lon="8.51618573918368"><ele>295.5</ele><time>2026-04-27T12:06:40.968Z</time></trkpt><trkpt lat="39.57606253983238" lon="8.516215650324071"><ele>292.3333333333333</ele><time>2026-04-27T12:06:41.968Z</time></trkpt><trkpt lat="39.575952176783744" lon="8.516245721754196"><ele>289.16666666666663</ele><time>2026-04-27T12:06:43.968Z</time></trkpt><trkpt lat="39.57585264740304" lon="8.516318400460571"><ele>286.0</ele><time>2026-04-27T12:06:45.968Z</time></trkpt><trkpt lat="39.57580247525834" lon="8.516442078988458"><ele>286.0</ele><time>2026-04-27T12:06:47.968Z</time></trkpt><trkpt lat="39.575791060226955" lon="8.516525723560417"><ele>286.0</ele><time>2026-04-27T12:06:48.968Z</time></trkpt><trkpt lat="39.57579015437322" lon="8.516617698788032"><ele>286.0</ele><time>2026-04-27T12:06:49.969Z</time></trkpt><trkpt lat="39.575778546810554" lon="8.516707186506007"><ele>286.0</ele><time>2026-04-27T12:06:51.969Z</time></trkpt><trkpt lat="39.57576195554813" lon="8.516788316940142"><ele>286.0</ele><time>2026-04-27T12:06:55.969Z</time></trkpt><trkpt lat="39.57581779069013" lon="8.516907531552322"><ele>286.0</ele><time>2026-04-27T12:06:57.969Z</time></trkpt><trkpt lat="39.57582100696328" lon="8.51700858040275"><ele>284.66666666666663</ele><time>2026-04-27T12:06:58.969Z</time></trkpt><trkpt lat="39.5758390306301" lon="8.517115134867089"><ele>283.3333333333333</ele><time>2026-04-27T12:06:59.969Z</time></trkpt><trkpt lat="39.57585588117796" lon="8.517226785309871"><ele>282.0</ele><time>2026-04-27T12:07:00.969Z</time></trkpt><trkpt lat="39.575873465355336" lon="8.517333369122188"><ele>280.6666666666667</ele><time>2026-04-27T12:07:01.969Z</time></trkpt><trkpt lat="39.57589698814936" lon="8.517431211951227"><ele>279.33333333333337</ele><time>2026-04-27T12:07:02.969Z</time></trkpt><trkpt lat="39.57594678152823" lon="8.517510403342099"><ele>278.0</ele><time>2026-04-27T12:07:03.969Z</time></trkpt><trkpt lat="39.57602157941358" lon="8.517547247942776"><ele>278.0</ele><time>2026-04-27T12:07:04.969Z</time></trkpt><trkpt lat="39.57610169321352" lon="8.51756035242776"><ele>278.0</ele><time>2026-04-27T12:07:05.969Z</time></trkpt><trkpt lat="39.576182575713005" lon="8.517514550606442"><ele>278.0</ele><time>2026-04-27T12:07:06.967Z</time></trkpt><trkpt lat="39.57626660094973" lon="8.517476247221621"><ele>278.0</ele><time>2026-04-27T12:07:07.967Z</time></trkpt><trkpt lat="39.57637545972156" lon="8.51744683047732"><ele>278.0</ele><time>2026-04-27T12:07:08.967Z</time></trkpt><trkpt lat="39.57648794933642" lon="8.517405552595047"><ele>278.25</ele><time>2026-04-27T12:07:09.967Z</time></trkpt><trkpt lat="39.576626387765124" lon="8.51737100400924"><ele>278.5</ele><time>2026-04-27T12:07:10.967Z</time></trkpt><trkpt lat="39.576772110592024" lon="8.517340609264874"><ele>278.75</ele><time>2026-04-27T12:07:11.967Z</time></trkpt><trkpt lat="39.5769177611951" lon="8.517312391126122"><ele>279.0</ele><time>2026-04-27T12:07:12.967Z</time></trkpt><trkpt lat="39.57703017780814" lon="8.517295748357984"><ele>281.0</ele><time>2026-04-27T12:07:13.967Z</time></trkpt><trkpt lat="39.57712880869945" lon="8.517310867354785"><ele>283.0</ele><time>2026-04-27T12:07:14.967Z</time></trkpt><trkpt lat="39.577220928897255" lon="8.51737227449857"><ele>285.0</ele><time>2026-04-27T12:07:15.967Z</time></trkpt><trkpt lat="39.5773295365844" lon="8.517439457517991"><ele>287.0</ele><time>2026-04-27T12:07:16.967Z</time></trkpt><trkpt lat="39.57744357860938" lon="8.517485541096633"><ele>289.0</ele><time>2026-04-27T12:07:17.967Z</time></trkpt><trkpt lat="39.57750470777616" lon="8.517564950287863"><ele>289.0</ele><time>2026-04-27T12:07:18.967Z</time></trkpt><trkpt lat="39.57755736282145" lon="8.51765004067694"><ele>289.0</ele><time>2026-04-27T12:07:19.968Z</time></trkpt><trkpt lat="39.577576765617216" lon="8.517770367239494"><ele>289.0</ele><time>2026-04-27T12:07:20.968Z</time></trkpt><trkpt lat="39.57756190249871" lon="8.517921598655855"><ele>289.0</ele><time>2026-04-27T12:07:21.968Z</time></trkpt><trkpt lat="39.57757786617721" lon="8.518078911039984"><ele>289.0</ele><time>2026-04-27T12:07:22.968Z</time></trkpt><trkpt lat="39.57762158720074" lon="8.518258035432144"><ele>285.0</ele><time>2026-04-27T12:07:23.968Z</time></trkpt><trkpt lat="39.57764974172222" lon="8.518451572892628"><ele>281.0</ele><time>2026-04-27T12:07:24.968Z</time></trkpt><trkpt lat="39.57766550339062" lon="8.518650199371793"><ele>277.0</ele><time>2026-04-27T12:07:25.968Z</time></trkpt><trkpt lat="39.57768457141219" lon="8.51884514881158"><ele>276.3333333333333</ele><time>2026-04-27T12:07:26.968Z</time></trkpt><trkpt lat="39.577705315546844" lon="8.519046426484783"><ele>275.6666666666667</ele><time>2026-04-27T12:07:27.968Z</time></trkpt><trkpt lat="39.577723982088166" lon="8.51924824316381"><ele>275.0</ele><time>2026-04-27T12:07:28.968Z</time></trkpt><trkpt lat="39.57772288689363" lon="8.519425388062302"><ele>276.6666666666667</ele><time>2026-04-27T12:07:29.968Z</time></trkpt><trkpt lat="39.57767889225635" lon="8.519603182913158"><ele>278.3333333333333</ele><time>2026-04-27T12:07:30.968Z</time></trkpt><trkpt lat="39.577635947988426" lon="8.519802592269851"><ele>280.0</ele><time>2026-04-27T12:07:31.968Z</time></trkpt><trkpt lat="39.5776181327687" lon="8.519997967895772"><ele>280.0</ele><time>2026-04-27T12:07:32.968Z</time></trkpt><trkpt lat="39.57758348362976" lon="8.52019379833995"><ele>280.0</ele><time>2026-04-27T12:07:33.968Z</time></trkpt><trkpt lat="39.57754952204976" lon="8.520398671215654"><ele>280.0</ele><time>2026-04-27T12:07:34.968Z</time></trkpt><trkpt lat="39.57749717952414" lon="8.5205906041727"><ele>281.25</ele><time>2026-04-27T12:07:35.968Z</time></trkpt><trkpt lat="39.57747245587137" lon="8.520785854921039"><ele>282.5</ele><time>2026-04-27T12:07:36.968Z</time></trkpt><trkpt lat="39.57743227811895" lon="8.520942108600286"><ele>283.75</ele><time>2026-04-27T12:07:37.968Z</time></trkpt><trkpt lat="39.577398994610405" lon="8.521078897517572"><ele>285.0</ele><time>2026-04-27T12:07:38.968Z</time></trkpt><trkpt lat="39.577352634157634" lon="8.521194307311283"><ele>284.2</ele><time>2026-04-27T12:07:40.968Z</time></trkpt><trkpt lat="39.577328065909384" lon="8.521270813101731"><ele>283.4</ele><time>2026-04-27T12:07:41.968Z</time></trkpt><trkpt lat="39.577347417702505" lon="8.521425714627208"><ele>282.6</ele><time>2026-04-27T12:07:42.968Z</time></trkpt><trkpt lat="39.57740590447917" lon="8.521525080177916"><ele>281.8</ele><time>2026-04-27T12:07:43.968Z</time></trkpt><trkpt lat="39.577358521655974" lon="8.521445513709882"><ele>281.0</ele><time>2026-04-27T12:07:55.968Z</time></trkpt><trkpt lat="39.577270290866885" lon="8.521476026582311"><ele>281.0</ele><time>2026-04-27T12:07:57.968Z</time></trkpt><trkpt lat="39.57721478215212" lon="8.52151829680112"><ele>281.0</ele><time>2026-04-27T12:07:58.968Z</time></trkpt><trkpt lat="39.57713926760527" lon="8.52156656587784"><ele>281.0</ele><time>2026-04-27T12:08:00.968Z</time></trkpt><trkpt lat="39.577135492401034" lon="8.5213977040258"><ele>281.0</ele><time>2026-04-27T12:08:03.969Z</time></trkpt><trkpt lat="39.57717136111385" lon="8.521264032998163"><ele>281.0</ele><time>2026-04-27T12:08:05.969Z</time></trkpt><trkpt lat="39.5772225406991" lon="8.521114056176842"><ele>281.6666666666667</ele><time>2026-04-27T12:08:07.969Z</time></trkpt><trkpt lat="39.57723416682238" lon="8.521031399327422"><ele>282.33333333333337</ele><time>2026-04-27T12:08:08.969Z</time></trkpt><trkpt lat="39.57724021897137" lon="8.520918353341237"><ele>283.0</ele><time>2026-04-27T12:08:09.969Z</time></trkpt><trkpt lat="39.57724254131731" lon="8.520801155638619"><ele>283.6666666666667</ele><time>2026-04-27T12:08:10.969Z</time></trkpt><trkpt lat="39.57723501274679" lon="8.520683773913527"><ele>284.3333333333333</ele><time>2026-04-27T12:08:11.969Z</time></trkpt><trkpt lat="39.5772356479894" lon="8.52056391352924"><ele>285.0</ele><time>2026-04-27T12:08:12.969Z</time></trkpt><trkpt lat="39.57723039474463" lon="8.520445979126253"><ele>284.1666666666667</ele><time>2026-04-27T12:08:13.969Z</time></trkpt><trkpt lat="39.57723406896964" lon="8.520324684745885"><ele>283.3333333333333</ele><time>2026-04-27T12:08:14.969Z</time></trkpt><trkpt lat="39.577244731937974" lon="8.520209683153922"><ele>282.5</ele><time>2026-04-27T12:08:15.969Z</time></trkpt><trkpt lat="39.5772610730923" lon="8.520093918073455"><ele>281.66666666666663</ele><time>2026-04-27T12:08:16.969Z</time></trkpt><trkpt lat="39.577277160871255" lon="8.519984597640681"><ele>280.8333333333333</ele><time>2026-04-27T12:08:17.969Z</time></trkpt><trkpt lat="39.577280497625026" lon="8.519884278862879"><ele>280.0</ele><time>2026-04-27T12:08:18.969Z</time></trkpt><trkpt lat="39.57728345735687" lon="8.51979015765166"><ele>280.0</ele><time>2026-04-27T12:08:19.969Z</time></trkpt><trkpt lat="39.57728344275733" lon="8.519687779695042"><ele>280.0</ele><time>2026-04-27T12:08:20.969Z</time></trkpt><trkpt lat="39.577303614959256" lon="8.519609270827317"><ele>280.0</ele><time>2026-04-27T12:08:21.969Z</time></trkpt><trkpt lat="39.577338785538984" lon="8.519492957015045"><ele>280.0</ele><time>2026-04-27T12:08:23.969Z</time></trkpt><trkpt lat="39.57722569853867" lon="8.51941020028284"><ele>280.0</ele><time>2026-04-27T12:08:27.969Z</time></trkpt><trkpt lat="39.57717048596055" lon="8.519522574542473"><ele>280.0</ele><time>2026-04-27T12:08:29.969Z</time></trkpt><trkpt lat="39.57713978841935" lon="8.519594306460194"><ele>280.0</ele><time>2026-04-27T12:08:30.969Z</time></trkpt><trkpt lat="39.577105289372376" lon="8.519682023181858"><ele>280.0</ele><time>2026-04-27T12:08:31.969Z</time></trkpt><trkpt lat="39.577057648142336" lon="8.519815659030193"><ele>280.0</ele><time>2026-04-27T12:08:33.969Z</time></trkpt><trkpt lat="39.57699979933967" lon="8.519967833942793"><ele>280.0</ele><time>2026-04-27T12:08:35.969Z</time></trkpt><trkpt lat="39.57693082124389" lon="8.52007641119754"><ele>275.4</ele><time>2026-04-27T12:08:37.969Z</time></trkpt><trkpt lat="39.57686091830415" lon="8.520151358832019"><ele>270.8</ele><time>2026-04-27T12:08:39.969Z</time></trkpt><trkpt lat="39.576797399791694" lon="8.520226711909313"><ele>266.2</ele><time>2026-04-27T12:08:41.969Z</time></trkpt><trkpt lat="39.5767643476002" lon="8.520371729626595"><ele>261.6</ele><time>2026-04-27T12:08:43.969Z</time></trkpt><trkpt lat="39.576765939372194" lon="8.520455768204037"><ele>257.0</ele><time>2026-04-27T12:08:44.969Z</time></trkpt><trkpt lat="39.57674149287736" lon="8.520604522145247"><ele>257.0</ele><time>2026-04-27T12:08:46.969Z</time></trkpt><trkpt lat="39.576671102284614" lon="8.520718604511309"><ele>257.0</ele><time>2026-04-27T12:08:48.969Z</time></trkpt><trkpt lat="39.576602435467706" lon="8.520859537709159"><ele>257.0</ele><time>2026-04-27T12:08:50.969Z</time></trkpt><trkpt lat="39.5765585341905" lon="8.520918877313"><ele>257.0</ele><time>2026-04-27T12:08:51.969Z</time></trkpt><trkpt lat="39.57650453830193" lon="8.52096110593703"><ele>257.0</ele><time>2026-04-27T12:08:52.97Z</time></trkpt><trkpt lat="39.576446149459" lon="8.521002177184224"><ele>257.0</ele><time>2026-04-27T12:08:53.97Z</time></trkpt><trkpt lat="39.57637786935475" lon="8.521030336588964"><ele>257.0</ele><time>2026-04-27T12:08:54.97Z</time></trkpt><trkpt lat="39.57630793316432" lon="8.52108985519682"><ele>257.0</ele><time>2026-04-27T12:08:55.97Z</time></trkpt><trkpt lat="39.576225424912046" lon="8.5211471326498"><ele>257.0</ele><time>2026-04-27T12:08:56.97Z</time></trkpt><trkpt lat="39.5761516271304" lon="8.521196301361645"><ele>257.0</ele><time>2026-04-27T12:08:57.97Z</time></trkpt><trkpt lat="39.57607894033666" lon="8.521251147485527"><ele>257.0</ele><time>2026-04-27T12:08:58.97Z</time></trkpt><trkpt lat="39.57599861504205" lon="8.521290644652387"><ele>257.0</ele><time>2026-04-27T12:08:59.97Z</time></trkpt><trkpt lat="39.57593162056352" lon="8.521371309933244"><ele>255.16666666666669</ele><time>2026-04-27T12:09:00.97Z</time></trkpt><trkpt lat="39.575860852163096" lon="8.52141632994106"><ele>253.33333333333334</ele><time>2026-04-27T12:09:01.97Z</time></trkpt><trkpt lat="39.575808425836215" lon="8.521493716391886"><ele>251.5</ele><time>2026-04-27T12:09:02.97Z</time></trkpt><trkpt lat="39.575752613458285" lon="8.52154177618387"><ele>249.66666666666669</ele><time>2026-04-27T12:09:03.97Z</time></trkpt><trkpt lat="39.57565560605619" lon="8.521626409008418"><ele>247.83333333333334</ele><time>2026-04-27T12:09:05.97Z</time></trkpt><trkpt lat="39.5755825376118" lon="8.521721463699036"><ele>246.0</ele><time>2026-04-27T12:09:07.97Z</time></trkpt><trkpt lat="39.57544875603405" lon="8.52177926077124"><ele>246.0</ele><time>2026-04-27T12:09:09.97Z</time></trkpt><trkpt lat="39.57538855535422" lon="8.52180880381468"><ele>246.0</ele><time>2026-04-27T12:09:10.97Z</time></trkpt><trkpt lat="39.575326576092614" lon="8.521860643228296"><ele>246.0</ele><time>2026-04-27T12:09:11.97Z</time></trkpt><trkpt lat="39.575252843802595" lon="8.521931773734165"><ele>246.0</ele><time>2026-04-27T12:09:12.968Z</time></trkpt><trkpt lat="39.57516901872054" lon="8.521979594757536"><ele>246.0</ele><time>2026-04-27T12:09:13.968Z</time></trkpt><trkpt lat="39.57507872485873" lon="8.522036463670993"><ele>246.0</ele><time>2026-04-27T12:09:14.968Z</time></trkpt><trkpt lat="39.57498797220984" lon="8.522064457199763"><ele>242.60000000000002</ele><time>2026-04-27T12:09:15.968Z</time></trkpt><trkpt lat="39.574894599066" lon="8.522071975386313"><ele>239.20000000000002</ele><time>2026-04-27T12:09:16.968Z</time></trkpt><trkpt lat="39.57480055379914" lon="8.522081503171995"><ele>235.79999999999998</ele><time>2026-04-27T12:09:17.968Z</time></trkpt><trkpt lat="39.574724497062036" lon="8.522109632496164"><ele>232.39999999999998</ele><time>2026-04-27T12:09:18.968Z</time></trkpt><trkpt lat="39.57464849403072" lon="8.522174208988266"><ele>229.0</ele><time>2026-04-27T12:09:19.968Z</time></trkpt><trkpt lat="39.57457084993437" lon="8.522244798459335"><ele>230.49999999999997</ele><time>2026-04-27T12:09:20.968Z</time></trkpt><trkpt lat="39.57449024672604" lon="8.522285542137823"><ele>232.0</ele><time>2026-04-27T12:09:21.968Z</time></trkpt><trkpt lat="39.57440930201344" lon="8.522297633077647"><ele>233.5</ele><time>2026-04-27T12:09:22.968Z</time></trkpt><trkpt lat="39.574329399678355" lon="8.522306273375982"><ele>235.0</ele><time>2026-04-27T12:09:23.968Z</time></trkpt><trkpt lat="39.574261647368374" lon="8.522304655627702"><ele>236.49999999999997</ele><time>2026-04-27T12:09:24.969Z</time></trkpt><trkpt lat="39.574180923182915" lon="8.522312756280419"><ele>238.0</ele><time>2026-04-27T12:09:25.968Z</time></trkpt><trkpt lat="39.57410937649175" lon="8.522347570120367"><ele>237.99999999999997</ele><time>2026-04-27T12:09:26.968Z</time></trkpt><trkpt lat="39.57403738263861" lon="8.522409196397678"><ele>238.0</ele><time>2026-04-27T12:09:27.968Z</time></trkpt><trkpt lat="39.57396847825852" lon="8.522487930000821"><ele>238.0</ele><time>2026-04-27T12:09:28.968Z</time></trkpt><trkpt lat="39.57390869708277" lon="8.52255158059083"><ele>238.0</ele><time>2026-04-27T12:09:29.968Z</time></trkpt><trkpt lat="39.57384853117199" lon="8.522585453559307"><ele>237.99999999999997</ele><time>2026-04-27T12:09:30.968Z</time></trkpt><trkpt lat="39.57377713638852" lon="8.522596737278146"><ele>238.0</ele><time>2026-04-27T12:09:31.968Z</time></trkpt><trkpt lat="39.57371161043404" lon="8.522599125878772"><ele>238.28571428571428</ele><time>2026-04-27T12:09:32.968Z</time></trkpt><trkpt lat="39.57365120488886" lon="8.522637892407214"><ele>238.57142857142856</ele><time>2026-04-27T12:09:33.968Z</time></trkpt><trkpt lat="39.57358798844472" lon="8.522676658957694"><ele>238.85714285714286</ele><time>2026-04-27T12:09:34.968Z</time></trkpt><trkpt lat="39.57352647312963" lon="8.52270688122093"><ele>239.14285714285714</ele><time>2026-04-27T12:09:35.968Z</time></trkpt><trkpt lat="39.573450036910565" lon="8.522755013618646"><ele>239.42857142857142</ele><time>2026-04-27T12:09:36.968Z</time></trkpt><trkpt lat="39.573388695937176" lon="8.522804437466746"><ele>239.71428571428572</ele><time>2026-04-27T12:09:37.968Z</time></trkpt><trkpt lat="39.57332608256995" lon="8.522865614641546"><ele>240.0</ele><time>2026-04-27T12:09:38.968Z</time></trkpt><trkpt lat="39.57326652355098" lon="8.522946222655618"><ele>240.66666666666666</ele><time>2026-04-27T12:09:39.968Z</time></trkpt><trkpt lat="39.57320559542702" lon="8.52302974244735"><ele>241.33333333333331</ele><time>2026-04-27T12:09:40.968Z</time></trkpt><trkpt lat="39.57315323416699" lon="8.523123795319671"><ele>242.0</ele><time>2026-04-27T12:09:41.968Z</time></trkpt><trkpt lat="39.573107955421406" lon="8.52319973711833"><ele>242.66666666666666</ele><time>2026-04-27T12:09:42.968Z</time></trkpt><trkpt lat="39.57304515158753" lon="8.523254618773343"><ele>243.33333333333331</ele><time>2026-04-27T12:09:43.968Z</time></trkpt><trkpt lat="39.57297242806597" lon="8.52329922337828"><ele>244.0</ele><time>2026-04-27T12:09:44.968Z</time></trkpt><trkpt lat="39.57288378621294" lon="8.523347561453388"><ele>244.0</ele><time>2026-04-27T12:09:45.968Z</time></trkpt><trkpt lat="39.57280163533226" lon="8.523390585395843"><ele>243.99999999999997</ele><time>2026-04-27T12:09:46.968Z</time></trkpt><trkpt lat="39.57271684089912" lon="8.523425113620522"><ele>243.99999999999997</ele><time>2026-04-27T12:09:47.968Z</time></trkpt><trkpt lat="39.57262024874621" lon="8.523446578066546"><ele>244.0</ele><time>2026-04-27T12:09:48.968Z</time></trkpt><trkpt lat="39.572525206691665" lon="8.52346630343275"><ele>244.0</ele><time>2026-04-27T12:09:49.968Z</time></trkpt><trkpt lat="39.572444194676336" lon="8.523492845822839"><ele>243.99999999999997</ele><time>2026-04-27T12:09:50.968Z</time></trkpt><trkpt lat="39.57235567743831" lon="8.52351813296588"><ele>244.0</ele><time>2026-04-27T12:09:51.968Z</time></trkpt><trkpt lat="39.572274876949756" lon="8.52353732197082"><ele>244.0</ele><time>2026-04-27T12:09:52.968Z</time></trkpt><trkpt lat="39.5721929847364" lon="8.523549468640322"><ele>244.0</ele><time>2026-04-27T12:09:53.968Z</time></trkpt><trkpt lat="39.572130197332434" lon="8.52354140525612"><ele>243.99999999999997</ele><time>2026-04-27T12:09:54.968Z</time></trkpt><trkpt lat="39.57205188416037" lon="8.523456373706845"><ele>244.0</ele><time>2026-04-27T12:09:56.968Z</time></trkpt><trkpt lat="39.5720077028878" lon="8.52337045768597"><ele>243.49999999999997</ele><time>2026-04-27T12:09:57.968Z</time></trkpt><trkpt lat="39.57195143288307" lon="8.523293624495787"><ele>243.0</ele><time>2026-04-27T12:09:58.968Z</time></trkpt><trkpt lat="39.571887632973215" lon="8.523248662975059"><ele>242.5</ele><time>2026-04-27T12:09:59.968Z</time></trkpt><trkpt lat="39.57182631336298" lon="8.523213393500457"><ele>242.0</ele><time>2026-04-27T12:10:00.968Z</time></trkpt><trkpt lat="39.571705672790124" lon="8.523179221776932"><ele>241.49999999999997</ele><time>2026-04-27T12:10:02.968Z</time></trkpt><trkpt lat="39.571630745396654" lon="8.523140039433445"><ele>241.0</ele><time>2026-04-27T12:10:03.968Z</time></trkpt><trkpt lat="39.57158008632655" lon="8.523078988241416"><ele>240.99999999999997</ele><time>2026-04-27T12:10:04.968Z</time></trkpt><trkpt lat="39.57149688377768" lon="8.52297039749151"><ele>241.0</ele><time>2026-04-27T12:10:06.968Z</time></trkpt><trkpt lat="39.571438941094215" lon="8.522933767135894"><ele>241.0</ele><time>2026-04-27T12:10:07.968Z</time></trkpt><trkpt lat="39.5713740159312" lon="8.522915612786324"><ele>241.0</ele><time>2026-04-27T12:10:08.968Z</time></trkpt><trkpt lat="39.57130862718245" lon="8.522914550753695"><ele>240.99999999999997</ele><time>2026-04-27T12:10:09.969Z</time></trkpt><trkpt lat="39.57122743953005" lon="8.522918116624508"><ele>241.0</ele><time>2026-04-27T12:10:10.969Z</time></trkpt><trkpt lat="39.57115356351663" lon="8.522931058073478"><ele>238.4</ele><time>2026-04-27T12:10:11.969Z</time></trkpt><trkpt lat="39.571046359381434" lon="8.522966683343537"><ele>235.8</ele><time>2026-04-27T12:10:13.969Z</time></trkpt><trkpt lat="39.57097880037541" lon="8.52305533684917"><ele>233.20000000000002</ele><time>2026-04-27T12:10:15.969Z</time></trkpt><trkpt lat="39.57093204909574" lon="8.523125025573187"><ele>230.60000000000002</ele><time>2026-04-27T12:10:17.969Z</time></trkpt><trkpt lat="39.570848588112526" lon="8.523254817538824"><ele>228.0</ele><time>2026-04-27T12:10:19.969Z</time></trkpt><trkpt lat="39.57079192781123" lon="8.523323370278314"><ele>228.0</ele><time>2026-04-27T12:10:20.969Z</time></trkpt><trkpt lat="39.570726501163776" lon="8.523386694913656"><ele>228.0</ele><time>2026-04-27T12:10:21.969Z</time></trkpt><trkpt lat="39.57066626319477" lon="8.523435501394305"><ele>228.0</ele><time>2026-04-27T12:10:22.969Z</time></trkpt><trkpt lat="39.570599371317556" lon="8.523487710958989"><ele>228.0</ele><time>2026-04-27T12:10:23.969Z</time></trkpt><trkpt lat="39.57053162195564" lon="8.523542419152395"><ele>228.0</ele><time>2026-04-27T12:10:24.969Z</time></trkpt><trkpt lat="39.5704558287902" lon="8.523611318478116"><ele>228.0</ele><time>2026-04-27T12:10:25.969Z</time></trkpt><trkpt lat="39.57038151414478" lon="8.523680934460605"><ele>226.33333333333334</ele><time>2026-04-27T12:10:26.969Z</time></trkpt><trkpt lat="39.57031410788198" lon="8.523733973747511"><ele>224.66666666666669</ele><time>2026-04-27T12:10:27.969Z</time></trkpt><trkpt lat="39.57024508995882" lon="8.523796728564937"><ele>223.0</ele><time>2026-04-27T12:10:28.969Z</time></trkpt><trkpt lat="39.57018926115805" lon="8.523858992652508"><ele>221.33333333333334</ele><time>2026-04-27T12:10:29.969Z</time></trkpt><trkpt lat="39.57012431743501" lon="8.523922224805997"><ele>219.66666666666669</ele><time>2026-04-27T12:10:30.969Z</time></trkpt><trkpt lat="39.57003079984006" lon="8.52399564774235"><ele>218.0</ele><time>2026-04-27T12:10:32.969Z</time></trkpt><trkpt lat="39.56995612673109" lon="8.524053873109807"><ele>218.0</ele><time>2026-04-27T12:10:34.969Z</time></trkpt><trkpt lat="39.56987862812976" lon="8.524118580168386"><ele>218.0</ele><time>2026-04-27T12:10:36.969Z</time></trkpt><trkpt lat="39.56979445486152" lon="8.524227120033249"><ele>218.0</ele><time>2026-04-27T12:10:38.969Z</time></trkpt><trkpt lat="39.569707959105756" lon="8.524307821876327"><ele>218.0</ele><time>2026-04-27T12:10:40.969Z</time></trkpt><trkpt lat="39.569590035487074" lon="8.524391967217541"><ele>218.0</ele><time>2026-04-27T12:10:42.966Z</time></trkpt><trkpt lat="39.56953045800713" lon="8.524424439635533"><ele>218.0</ele><time>2026-04-27T12:10:43.965Z</time></trkpt><trkpt lat="39.5694178106404" lon="8.524499102054214"><ele>218.0</ele><time>2026-04-27T12:10:45.963Z</time></trkpt><trkpt lat="39.56930931433191" lon="8.524596627556502"><ele>218.0</ele><time>2026-04-27T12:10:47.961Z</time></trkpt><trkpt lat="39.569259310136985" lon="8.52466074739581"><ele>218.0</ele><time>2026-04-27T12:10:48.96Z</time></trkpt><trkpt lat="39.56920075537357" lon="8.524737188909281"><ele>215.33333333333334</ele><time>2026-04-27T12:10:49.959Z</time></trkpt><trkpt lat="39.56915600067236" lon="8.524815347573899"><ele>212.66666666666669</ele><time>2026-04-27T12:10:50.958Z</time></trkpt><trkpt lat="39.56912486962578" lon="8.52489481895268"><ele>210.0</ele><time>2026-04-27T12:10:51.957Z</time></trkpt><trkpt lat="39.569098430710625" lon="8.52498594945995"><ele>207.33333333333331</ele><time>2026-04-27T12:10:52.957Z</time></trkpt><trkpt lat="39.56906338473053" lon="8.525096173432784"><ele>204.66666666666666</ele><time>2026-04-27T12:10:53.956Z</time></trkpt><trkpt lat="39.5690285276772" lon="8.525196964988298"><ele>202.0</ele><time>2026-04-27T12:10:54.955Z</time></trkpt><trkpt lat="39.568988910342036" lon="8.525303278023799"><ele>201.99999999999997</ele><time>2026-04-27T12:10:55.955Z</time></trkpt><trkpt lat="39.56895191986189" lon="8.52538861459125"><ele>202.0</ele><time>2026-04-27T12:10:56.954Z</time></trkpt><trkpt lat="39.56892783087611" lon="8.52546642172511"><ele>202.0</ele><time>2026-04-27T12:10:57.954Z</time></trkpt><trkpt lat="39.568895419108244" lon="8.525560198963557"><ele>202.0</ele><time>2026-04-27T12:10:58.953Z</time></trkpt><trkpt lat="39.56884131150332" lon="8.525645418614392"><ele>201.99999999999997</ele><time>2026-04-27T12:10:59.953Z</time></trkpt><trkpt lat="39.56879308271595" lon="8.525724447273877"><ele>202.0</ele><time>2026-04-27T12:11:00.952Z</time></trkpt><trkpt lat="39.56874875378461" lon="8.525807652812123"><ele>199.83333333333331</ele><time>2026-04-27T12:11:01.952Z</time></trkpt><trkpt lat="39.568718497267554" lon="8.525894864041547"><ele>197.66666666666666</ele><time>2026-04-27T12:11:02.952Z</time></trkpt><trkpt lat="39.568692024553606" lon="8.526000005677673"><ele>195.5</ele><time>2026-04-27T12:11:03.951Z</time></trkpt><trkpt lat="39.56865227635238" lon="8.52610092919516"><ele>193.33333333333331</ele><time>2026-04-27T12:11:04.951Z</time></trkpt><trkpt lat="39.56861482815575" lon="8.52619386882801"><ele>191.16666666666666</ele><time>2026-04-27T12:11:05.951Z</time></trkpt><trkpt lat="39.56858534746148" lon="8.526291554312385"><ele>189.0</ele><time>2026-04-27T12:11:06.95Z</time></trkpt><trkpt lat="39.568570647190285" lon="8.52639484481813"><ele>188.66666666666666</ele><time>2026-04-27T12:11:07.95Z</time></trkpt><trkpt lat="39.56856148490348" lon="8.526506189729405"><ele>188.33333333333334</ele><time>2026-04-27T12:11:08.95Z</time></trkpt><trkpt lat="39.56854684139546" lon="8.52660985855094"><ele>188.0</ele><time>2026-04-27T12:11:09.95Z</time></trkpt><trkpt lat="39.5685361675052" lon="8.526690676862268"><ele>187.66666666666669</ele><time>2026-04-27T12:11:10.949Z</time></trkpt><trkpt lat="39.56852652905101" lon="8.526838259052186"><ele>187.33333333333334</ele><time>2026-04-27T12:11:12.949Z</time></trkpt><trkpt lat="39.568503713953454" lon="8.526940476621132"><ele>187.0</ele><time>2026-04-27T12:11:14.949Z</time></trkpt><trkpt lat="39.56839331989268" lon="8.52698141806491"><ele>187.0</ele><time>2026-04-27T12:11:16.948Z</time></trkpt><trkpt lat="39.568317829974035" lon="8.526985388665956"><ele>187.0</ele><time>2026-04-27T12:11:17.948Z</time></trkpt><trkpt lat="39.56823157240223" lon="8.526999925560466"><ele>187.0</ele><time>2026-04-27T12:11:18.947Z</time></trkpt><trkpt lat="39.5681420064159" lon="8.527008825084371"><ele>187.0</ele><time>2026-04-27T12:11:19.947Z</time></trkpt><trkpt lat="39.568068969296334" lon="8.527005724590268"><ele>187.0</ele><time>2026-04-27T12:11:20.947Z</time></trkpt><trkpt lat="39.56800163171324" lon="8.52698930238485"><ele>187.0</ele><time>2026-04-27T12:11:21.947Z</time></trkpt><trkpt lat="39.567900687305745" lon="8.526923926110449"><ele>187.0</ele><time>2026-04-27T12:11:23.946Z</time></trkpt><trkpt lat="39.56784295869998" lon="8.526820222097538"><ele>187.0</ele><time>2026-04-27T12:11:25.946Z</time></trkpt><trkpt lat="39.56782490225769" lon="8.526708425148422"><ele>187.0</ele><time>2026-04-27T12:11:27.946Z</time></trkpt><trkpt lat="39.56782898951886" lon="8.526611327053486"><ele>187.0</ele><time>2026-04-27T12:11:28.947Z</time></trkpt><trkpt lat="39.5678495602634" lon="8.526524297392557"><ele>187.0</ele><time>2026-04-27T12:11:29.947Z</time></trkpt><trkpt lat="39.56787033484037" lon="8.526420301403702"><ele>187.0</ele><time>2026-04-27T12:11:30.946Z</time></trkpt><trkpt lat="39.5679092328592" lon="8.526293119484901"><ele>183.8</ele><time>2026-04-27T12:11:32.946Z</time></trkpt><trkpt lat="39.567845647720915" lon="8.526164871454453"><ele>180.6</ele><time>2026-04-27T12:11:34.946Z</time></trkpt><trkpt lat="39.56777403925039" lon="8.526088396783038"><ele>177.4</ele><time>2026-04-27T12:11:35.946Z</time></trkpt><trkpt lat="39.56770857735724" lon="8.52600519416002"><ele>174.20000000000002</ele><time>2026-04-27T12:11:36.946Z</time></trkpt><trkpt lat="39.56764289344317" lon="8.525916791310875"><ele>171.0</ele><time>2026-04-27T12:11:37.946Z</time></trkpt><trkpt lat="39.56758657534394" lon="8.52582511373725"><ele>171.0</ele><time>2026-04-27T12:11:38.945Z</time></trkpt><trkpt lat="39.56752627714396" lon="8.525749675239444"><ele>171.0</ele><time>2026-04-27T12:11:39.945Z</time></trkpt><trkpt lat="39.56746364701613" lon="8.525703927298355"><ele>171.0</ele><time>2026-04-27T12:11:40.945Z</time></trkpt><trkpt lat="39.56739661325055" lon="8.525691620238707"><ele>171.0</ele><time>2026-04-27T12:11:41.945Z</time></trkpt><trkpt lat="39.56731544927344" lon="8.52570361311356"><ele>171.0</ele><time>2026-04-27T12:11:42.945Z</time></trkpt><trkpt lat="39.56722429246838" lon="8.525725217826478"><ele>171.0</ele><time>2026-04-27T12:11:43.945Z</time></trkpt><trkpt lat="39.567129901407604" lon="8.52573830355861"><ele>171.0</ele><time>2026-04-27T12:11:44.945Z</time></trkpt><trkpt lat="39.567034382009865" lon="8.525750079437"><ele>171.0</ele><time>2026-04-27T12:11:45.945Z</time></trkpt><trkpt lat="39.566947880512444" lon="8.525764238581433"><ele>171.0</ele><time>2026-04-27T12:11:46.945Z</time></trkpt><trkpt lat="39.56687746187844" lon="8.525782222359027"><ele>171.0</ele><time>2026-04-27T12:11:47.945Z</time></trkpt><trkpt lat="39.56679100290553" lon="8.525852452007653"><ele>171.0</ele><time>2026-04-27T12:11:49.945Z</time></trkpt><trkpt lat="39.566807996092166" lon="8.525938558735263"><ele>171.0</ele><time>2026-04-27T12:11:51.945Z</time></trkpt><trkpt lat="39.56689029276469" lon="8.525990401513026"><ele>171.0</ele><time>2026-04-27T12:11:53.945Z</time></trkpt><trkpt lat="39.56696737214046" lon="8.52599996885411"><ele>171.0</ele><time>2026-04-27T12:11:54.945Z</time></trkpt><trkpt lat="39.5670312184178" lon="8.526008808061427"><ele>171.0</ele><time>2026-04-27T12:11:55.945Z</time></trkpt><trkpt lat="39.56711610668827" lon="8.52603720936339"><ele>171.0</ele><time>2026-04-27T12:11:57.945Z</time></trkpt><trkpt lat="39.56718708338819" lon="8.526055158896916"><ele>171.0</ele><time>2026-04-27T12:11:59.945Z</time></trkpt><trkpt lat="39.56718918473141" lon="8.526155139941556"><ele>171.0</ele><time>2026-04-27T12:12:01.945Z</time></trkpt><trkpt lat="39.56710591657193" lon="8.526247852609885"><ele>171.66666666666666</ele><time>2026-04-27T12:12:03.945Z</time></trkpt><trkpt lat="39.56703582764134" lon="8.526305641305305"><ele>172.33333333333334</ele><time>2026-04-27T12:12:04.945Z</time></trkpt><trkpt lat="39.56697742098542" lon="8.526351976745863"><ele>173.0</ele><time>2026-04-27T12:12:05.945Z</time></trkpt><trkpt lat="39.56688991115362" lon="8.52645222935287"><ele>173.66666666666669</ele><time>2026-04-27T12:12:07.945Z</time></trkpt><trkpt lat="39.56682559934252" lon="8.526543692610911"><ele>174.33333333333334</ele><time>2026-04-27T12:12:09.945Z</time></trkpt><trkpt lat="39.56676272363752" lon="8.526564197065538"><ele>175.0</ele><time>2026-04-27T12:12:10.945Z</time></trkpt><trkpt lat="39.566668416978445" lon="8.526707338375694"><ele>171.83333333333334</ele><time>2026-04-27T12:12:12.946Z</time></trkpt><trkpt lat="39.56662076529229" lon="8.526814537688066"><ele>168.66666666666669</ele><time>2026-04-27T12:12:13.946Z</time></trkpt><trkpt lat="39.56660954120893" lon="8.526917892537464"><ele>165.5</ele><time>2026-04-27T12:12:14.946Z</time></trkpt><trkpt lat="39.566596138307354" lon="8.527035828828879"><ele>162.33333333333334</ele><time>2026-04-27T12:12:15.946Z</time></trkpt><trkpt lat="39.56656661918429" lon="8.527148515387344"><ele>159.16666666666666</ele><time>2026-04-27T12:12:16.946Z</time></trkpt><trkpt lat="39.56654214053205" lon="8.527245838391107"><ele>156.0</ele><time>2026-04-27T12:12:17.946Z</time></trkpt><trkpt lat="39.566522519476926" lon="8.5273620424879"><ele>156.0</ele><time>2026-04-27T12:12:18.946Z</time></trkpt><trkpt lat="39.566523304004804" lon="8.527460605327866"><ele>156.0</ele><time>2026-04-27T12:12:19.946Z</time></trkpt><trkpt lat="39.56652381014097" lon="8.527554126421887"><ele>156.0</ele><time>2026-04-27T12:12:20.946Z</time></trkpt><trkpt lat="39.56653806597822" lon="8.5277088014488"><ele>156.0</ele><time>2026-04-27T12:12:22.946Z</time></trkpt><trkpt lat="39.56654410533519" lon="8.52779696089187"><ele>156.0</ele><time>2026-04-27T12:12:23.946Z</time></trkpt><trkpt lat="39.56654635647396" lon="8.527878623274574"><ele>156.0</ele><time>2026-04-27T12:12:24.946Z</time></trkpt><trkpt lat="39.56654642021017" lon="8.527963560273752"><ele>155.0</ele><time>2026-04-27T12:12:25.946Z</time></trkpt><trkpt lat="39.56655557552546" lon="8.52806216419991"><ele>154.0</ele><time>2026-04-27T12:12:26.946Z</time></trkpt><trkpt lat="39.566572947125415" lon="8.528154113668007"><ele>153.0</ele><time>2026-04-27T12:12:27.946Z</time></trkpt><trkpt lat="39.56659525169597" lon="8.528237495361319"><ele>152.0</ele><time>2026-04-27T12:12:28.946Z</time></trkpt><trkpt lat="39.56663782472872" lon="8.52834096429963"><ele>151.0</ele><time>2026-04-27T12:12:30.946Z</time></trkpt><trkpt lat="39.56672781923508" lon="8.528381778137012"><ele>150.0</ele><time>2026-04-27T12:12:32.946Z</time></trkpt><trkpt lat="39.566705927020095" lon="8.528483388751757"><ele>150.0</ele><time>2026-04-27T12:12:36.946Z</time></trkpt><trkpt lat="39.566621481203796" lon="8.52845796532354"><ele>150.0</ele><time>2026-04-27T12:12:38.946Z</time></trkpt><trkpt lat="39.56654096081723" lon="8.528460552714987"><ele>150.0</ele><time>2026-04-27T12:12:40.946Z</time></trkpt><trkpt lat="39.56652907843605" lon="8.528558642381498"><ele>150.0</ele><time>2026-04-27T12:12:43.946Z</time></trkpt><trkpt lat="39.56659622900663" lon="8.52867232929325"><ele>150.0</ele><time>2026-04-27T12:12:45.946Z</time></trkpt><trkpt lat="39.566574545498256" lon="8.528793822552057"><ele>148.5</ele><time>2026-04-27T12:12:47.946Z</time></trkpt><trkpt lat="39.56650941188433" lon="8.528933934239035"><ele>147.0</ele><time>2026-04-27T12:12:49.946Z</time></trkpt><trkpt lat="39.56648781289769" lon="8.52902516108767"><ele>145.5</ele><time>2026-04-27T12:12:50.946Z</time></trkpt><trkpt lat="39.56647514259996" lon="8.52910875634536"><ele>144.0</ele><time>2026-04-27T12:12:51.946Z</time></trkpt><trkpt lat="39.56645777902239" lon="8.529192982737717"><ele>142.5</ele><time>2026-04-27T12:12:52.946Z</time></trkpt><trkpt lat="39.56643785910498" lon="8.529278514695635"><ele>141.0</ele><time>2026-04-27T12:12:53.946Z</time></trkpt><trkpt lat="39.566423137455345" lon="8.529358876709729"><ele>141.0</ele><time>2026-04-27T12:12:54.946Z</time></trkpt><trkpt lat="39.566412794059644" lon="8.529455051388586"><ele>141.0</ele><time>2026-04-27T12:12:56.946Z</time></trkpt><trkpt lat="39.56642943797531" lon="8.529560890768742"><ele>141.0</ele><time>2026-04-27T12:13:01.946Z</time></trkpt><trkpt lat="39.56644804411154" lon="8.52964451435741"><ele>141.0</ele><time>2026-04-27T12:13:04.946Z</time></trkpt><trkpt lat="39.56648408828396" lon="8.529760781501551"><ele>141.0</ele><time>2026-04-27T12:14:27.947Z</time></trkpt><trkpt lat="39.56651125082783" lon="8.529883586351772"><ele>141.0</ele><time>2026-04-27T12:14:29.947Z</time></trkpt><trkpt lat="39.56656626016484" lon="8.530002462827111"><ele>138.4</ele><time>2026-04-27T12:14:31.947Z</time></trkpt><trkpt lat="39.566604366421195" lon="8.530129973052091"><ele>135.8</ele><time>2026-04-27T12:14:33.947Z</time></trkpt><trkpt lat="39.56667869379607" lon="8.530159582769437"><ele>133.20000000000002</ele><time>2026-04-27T12:14:35.947Z</time></trkpt><trkpt lat="39.56672753073058" lon="8.530234707090408"><ele>130.6</ele><time>2026-04-27T12:14:37.947Z</time></trkpt><trkpt lat="39.56664393883811" lon="8.530300203871652"><ele>128.0</ele><time>2026-04-27T12:14:39.947Z</time></trkpt><trkpt lat="39.5665406891004" lon="8.530336764105996"><ele>127.33333333333333</ele><time>2026-04-27T12:14:41.947Z</time></trkpt><trkpt lat="39.56652512997199" lon="8.530429159906115"><ele>126.66666666666666</ele><time>2026-04-27T12:14:43.947Z</time></trkpt><trkpt lat="39.566505678005214" lon="8.530566627421171"><ele>126.0</ele><time>2026-04-27T12:14:45.947Z</time></trkpt><trkpt lat="39.56651482654648" lon="8.530669410054896"><ele>125.33333333333334</ele><time>2026-04-27T12:14:47.947Z</time></trkpt><trkpt lat="39.56653728768895" lon="8.53077375570687"><ele>124.66666666666667</ele><time>2026-04-27T12:14:49.947Z</time></trkpt><trkpt lat="39.56650412055014" lon="8.530885444296315"><ele>124.0</ele><time>2026-04-27T12:14:51.947Z</time></trkpt><trkpt lat="39.56647973390413" lon="8.530974891742318"><ele>124.0</ele><time>2026-04-27T12:15:32.946Z</time></trkpt><trkpt lat="39.56649793307883" lon="8.531076671512745"><ele>124.0</ele><time>2026-04-27T12:15:34.947Z</time></trkpt><trkpt lat="39.56653087664993" lon="8.531166341215602"><ele>124.0</ele><time>2026-04-27T12:15:36.946Z</time></trkpt><trkpt lat="39.56656339576725" lon="8.531273463971196"><ele>124.0</ele><time>2026-04-27T12:15:45.946Z</time></trkpt><trkpt lat="39.566602553126856" lon="8.531422237070423"><ele>124.0</ele><time>2026-04-27T12:15:47.946Z</time></trkpt><trkpt lat="39.56658877143849" lon="8.531587976826351"><ele>124.50000000000001</ele><time>2026-04-27T12:15:49.946Z</time></trkpt><trkpt lat="39.56660492471288" lon="8.531677992254847"><ele>125.0</ele><time>2026-04-27T12:15:50.946Z</time></trkpt><trkpt lat="39.566622251425244" lon="8.531765907460152"><ele>125.5</ele><time>2026-04-27T12:15:51.946Z</time></trkpt><trkpt lat="39.56663597697336" lon="8.531849000472807"><ele>126.0</ele><time>2026-04-27T12:15:52.946Z</time></trkpt><trkpt lat="39.56667376179924" lon="8.532006806911589"><ele>126.50000000000001</ele><time>2026-04-27T12:15:54.946Z</time></trkpt><trkpt lat="39.56667535445919" lon="8.53210203374008"><ele>127.0</ele><time>2026-04-27T12:15:55.946Z</time></trkpt><trkpt lat="39.56669913141337" lon="8.532252384945851"><ele>127.6</ele><time>2026-04-27T12:15:57.946Z</time></trkpt><trkpt lat="39.56676758056559" lon="8.53238887771155"><ele>128.2</ele><time>2026-04-27T12:15:59.946Z</time></trkpt><trkpt lat="39.56685585173321" lon="8.532487855349089"><ele>128.8</ele><time>2026-04-27T12:16:01.946Z</time></trkpt><trkpt lat="39.56689497107345" lon="8.532562539891952"><ele>129.4</ele><time>2026-04-27T12:16:02.946Z</time></trkpt><trkpt lat="39.566960240282924" lon="8.532701172152372"><ele>130.0</ele><time>2026-04-27T12:16:04.946Z</time></trkpt><trkpt lat="39.56700123649854" lon="8.532779159057952"><ele>131.42857142857144</ele><time>2026-04-27T12:16:05.946Z</time></trkpt><trkpt lat="39.567028842542015" lon="8.532855292853403"><ele>132.85714285714286</ele><time>2026-04-27T12:16:06.946Z</time></trkpt><trkpt lat="39.56704646458293" lon="8.532933981262344"><ele>134.28571428571428</ele><time>2026-04-27T12:16:07.946Z</time></trkpt><trkpt lat="39.56707002916123" lon="8.533019027191173"><ele>135.71428571428572</ele><time>2026-04-27T12:16:08.946Z</time></trkpt><trkpt lat="39.56710388554478" lon="8.533097250531007"><ele>137.14285714285714</ele><time>2026-04-27T12:16:09.946Z</time></trkpt><trkpt lat="39.56714488888586" lon="8.533200472075453"><ele>138.57142857142858</ele><time>2026-04-27T12:16:11.946Z</time></trkpt><trkpt lat="39.567101722657796" lon="8.533268849475741"><ele>140.0</ele><time>2026-04-27T12:16:14.946Z</time></trkpt><trkpt lat="39.567033818436634" lon="8.533305690892416"><ele>140.33333333333331</ele><time>2026-04-27T12:16:16.946Z</time></trkpt><trkpt lat="39.566975767530685" lon="8.533345761915117"><ele>140.66666666666666</ele><time>2026-04-27T12:16:19.946Z</time></trkpt><trkpt lat="39.566956837703295" lon="8.533439161309095"><ele>141.0</ele><time>2026-04-27T12:16:28.946Z</time></trkpt><trkpt lat="39.56694319684023" lon="8.533530784315008"><ele>141.33333333333334</ele><time>2026-04-27T12:16:31.946Z</time></trkpt><trkpt lat="39.56692952716927" lon="8.53362173669185"><ele>141.66666666666669</ele><time>2026-04-27T12:16:33.946Z</time></trkpt><trkpt lat="39.566926348453386" lon="8.533736967450372"><ele>142.0</ele><time>2026-04-27T12:16:35.946Z</time></trkpt><trkpt lat="39.566951898149156" lon="8.533867507791847"><ele>142.0</ele><time>2026-04-27T12:16:37.946Z</time></trkpt><trkpt lat="39.56696380961562" lon="8.53402982463075"><ele>142.0</ele><time>2026-04-27T12:16:39.946Z</time></trkpt><trkpt lat="39.566996397069914" lon="8.534109983280237"><ele>142.0</ele><time>2026-04-27T12:16:40.946Z</time></trkpt><trkpt lat="39.5670073878118" lon="8.534197076790784"><ele>142.0</ele><time>2026-04-27T12:16:41.946Z</time></trkpt><trkpt lat="39.56700591731599" lon="8.534314152145885"><ele>142.0</ele><time>2026-04-27T12:16:42.946Z</time></trkpt><trkpt lat="39.567036495216506" lon="8.534397724825311"><ele>142.0</ele><time>2026-04-27T12:16:43.946Z</time></trkpt><trkpt lat="39.56706175302182" lon="8.534514177543628"><ele>140.0</ele><time>2026-04-27T12:16:44.946Z</time></trkpt><trkpt lat="39.5670935680917" lon="8.534612071882842"><ele>138.0</ele><time>2026-04-27T12:16:45.946Z</time></trkpt><trkpt lat="39.567111368838695" lon="8.534714568895374"><ele>136.0</ele><time>2026-04-27T12:16:46.946Z</time></trkpt><trkpt lat="39.567141000623984" lon="8.534812623391748"><ele>134.0</ele><time>2026-04-27T12:16:47.946Z</time></trkpt><trkpt lat="39.56718218432265" lon="8.534944725112062"><ele>132.0</ele><time>2026-04-27T12:16:49.947Z</time></trkpt><trkpt lat="39.56719919238146" lon="8.535038453065141"><ele>130.0</ele><time>2026-04-27T12:16:50.947Z</time></trkpt><trkpt lat="39.567221041171535" lon="8.535126062491498"><ele>130.0</ele><time>2026-04-27T12:16:51.947Z</time></trkpt><trkpt lat="39.567255523986866" lon="8.535214703671375"><ele>130.0</ele><time>2026-04-27T12:16:52.947Z</time></trkpt><trkpt lat="39.56732839731188" lon="8.535357050091033"><ele>130.0</ele><time>2026-04-27T12:16:54.947Z</time></trkpt><trkpt lat="39.567377412389824" lon="8.535509903307155"><ele>130.0</ele><time>2026-04-27T12:16:56.947Z</time></trkpt><trkpt lat="39.56741551636128" lon="8.535666581699349"><ele>131.16666666666669</ele><time>2026-04-27T12:16:58.947Z</time></trkpt><trkpt lat="39.567429142804116" lon="8.535748303681395"><ele>132.33333333333334</ele><time>2026-04-27T12:16:59.947Z</time></trkpt><trkpt lat="39.56745528433148" lon="8.535844656769635"><ele>133.5</ele><time>2026-04-27T12:17:00.947Z</time></trkpt><trkpt lat="39.56749678684775" lon="8.535940440474771"><ele>134.66666666666666</ele><time>2026-04-27T12:17:01.947Z</time></trkpt><trkpt lat="39.56754379503411" lon="8.536034823756232"><ele>135.83333333333331</ele><time>2026-04-27T12:17:02.947Z</time></trkpt><trkpt lat="39.567588482804695" lon="8.536167664392584"><ele>137.0</ele><time>2026-04-27T12:17:04.947Z</time></trkpt><trkpt lat="39.56759546176238" lon="8.536327847755448"><ele>137.66666666666666</ele><time>2026-04-27T12:17:06.947Z</time></trkpt><trkpt lat="39.56757594952074" lon="8.536416231465935"><ele>138.33333333333331</ele><time>2026-04-27T12:17:07.947Z</time></trkpt><trkpt lat="39.56755357989514" lon="8.536494098114344"><ele>139.0</ele><time>2026-04-27T12:17:08.947Z</time></trkpt><trkpt lat="39.56754061905891" lon="8.53661584000329"><ele>139.66666666666666</ele><time>2026-04-27T12:17:10.947Z</time></trkpt><trkpt lat="39.567579727046585" lon="8.536710108329151"><ele>140.33333333333334</ele><time>2026-04-27T12:17:12.947Z</time></trkpt><trkpt lat="39.567637062011556" lon="8.536855727721077"><ele>141.0</ele><time>2026-04-27T12:17:14.947Z</time></trkpt><trkpt lat="39.567649402605944" lon="8.536951645983118"><ele>141.0</ele><time>2026-04-27T12:17:15.947Z</time></trkpt><trkpt lat="39.56766853040316" lon="8.53704735786572"><ele>141.0</ele><time>2026-04-27T12:17:16.947Z</time></trkpt><trkpt lat="39.567678923364916" lon="8.537148211449983"><ele>141.0</ele><time>2026-04-27T12:17:17.947Z</time></trkpt><trkpt lat="39.56767306299667" lon="8.537283420001655"><ele>141.0</ele><time>2026-04-27T12:17:19.947Z</time></trkpt><trkpt lat="39.56764578137048" lon="8.537425303317919"><ele>141.0</ele><time>2026-04-27T12:17:21.947Z</time></trkpt><trkpt lat="39.56760953858104" lon="8.537535175355593"><ele>142.0</ele><time>2026-04-27T12:17:23.947Z</time></trkpt><trkpt lat="39.56752938576827" lon="8.537642732913554"><ele>143.0</ele><time>2026-04-27T12:17:25.947Z</time></trkpt><trkpt lat="39.56749126563975" lon="8.53772128186536"><ele>144.0</ele><time>2026-04-27T12:17:26.947Z</time></trkpt><trkpt lat="39.56743736581258" lon="8.53780624795097"><ele>145.0</ele><time>2026-04-27T12:17:28.947Z</time></trkpt><trkpt lat="39.56738634510108" lon="8.537926279910694"><ele>146.0</ele><time>2026-04-27T12:17:30.947Z</time></trkpt><trkpt lat="39.567347449452015" lon="8.538002283959639"><ele>147.0</ele><time>2026-04-27T12:17:31.947Z</time></trkpt><trkpt lat="39.56728737848994" lon="8.538132120236265"><ele>148.4</ele><time>2026-04-27T12:17:33.947Z</time></trkpt><trkpt lat="39.56724988923701" lon="8.538261936475829"><ele>149.79999999999998</ele><time>2026-04-27T12:17:35.946Z</time></trkpt><trkpt lat="39.56721962943495" lon="8.538381112147595"><ele>151.2</ele><time>2026-04-27T12:17:37.946Z</time></trkpt><trkpt lat="39.56719348281593" lon="8.538484643077812"><ele>152.6</ele><time>2026-04-27T12:17:39.946Z</time></trkpt><trkpt lat="39.56716513571541" lon="8.538632786383449"><ele>154.0</ele><time>2026-04-27T12:17:41.947Z</time></trkpt><trkpt lat="39.56708744823012" lon="8.538732333159247"><ele>155.66666666666669</ele><time>2026-04-27T12:17:43.946Z</time></trkpt><trkpt lat="39.56706733451604" lon="8.538815226993066"><ele>157.33333333333334</ele><time>2026-04-27T12:17:44.946Z</time></trkpt><trkpt lat="39.56704482572149" lon="8.538931251728378"><ele>159.0</ele><time>2026-04-27T12:17:46.947Z</time></trkpt><trkpt lat="39.567037857650014" lon="8.539084145039574"><ele>160.66666666666666</ele><time>2026-04-27T12:17:48.946Z</time></trkpt><trkpt lat="39.567033123279806" lon="8.539169446870158"><ele>162.33333333333331</ele><time>2026-04-27T12:17:49.946Z</time></trkpt><trkpt lat="39.56703607357087" lon="8.539294436031255"><ele>164.0</ele><time>2026-04-27T12:17:51.946Z</time></trkpt><trkpt lat="39.56703859619955" lon="8.539385684623943"><ele>164.0</ele><time>2026-04-27T12:17:52.946Z</time></trkpt><trkpt lat="39.56706738818636" lon="8.53953524161804"><ele>164.0</ele><time>2026-04-27T12:17:54.946Z</time></trkpt><trkpt lat="39.56708263295818" lon="8.53962573042475"><ele>164.0</ele><time>2026-04-27T12:17:55.946Z</time></trkpt><trkpt lat="39.56708390478017" lon="8.53976963544739"><ele>164.0</ele><time>2026-04-27T12:17:57.947Z</time></trkpt><trkpt lat="39.56707877036116" lon="8.539858404125393"><ele>164.0</ele><time>2026-04-27T12:17:58.947Z</time></trkpt><trkpt lat="39.56707434814159" lon="8.539941929814454"><ele>164.0</ele><time>2026-04-27T12:17:59.947Z</time></trkpt><trkpt lat="39.56709034123015" lon="8.540120206884799"><ele>165.0</ele><time>2026-04-27T12:18:01.947Z</time></trkpt><trkpt lat="39.56710083659832" lon="8.540216195638926"><ele>166.0</ele><time>2026-04-27T12:18:02.947Z</time></trkpt><trkpt lat="39.56709933618663" lon="8.540305831100088"><ele>167.0</ele><time>2026-04-27T12:18:03.947Z</time></trkpt><trkpt lat="39.567114358951514" lon="8.540406940397801"><ele>168.0</ele><time>2026-04-27T12:18:04.947Z</time></trkpt><trkpt lat="39.56711063371382" lon="8.540512200645164"><ele>169.0</ele><time>2026-04-27T12:18:05.947Z</time></trkpt><trkpt lat="39.56708792800669" lon="8.540649520058121"><ele>170.0</ele><time>2026-04-27T12:18:07.947Z</time></trkpt><trkpt lat="39.56706965396136" lon="8.540745995773907"><ele>171.0</ele><time>2026-04-27T12:18:08.947Z</time></trkpt><trkpt lat="39.56705455958266" lon="8.540838120845363"><ele>172.0</ele><time>2026-04-27T12:18:09.947Z</time></trkpt><trkpt lat="39.567014930184236" lon="8.541002425324374"><ele>173.0</ele><time>2026-04-27T12:18:11.947Z</time></trkpt><trkpt lat="39.56697649734433" lon="8.541134708506155"><ele>174.0</ele><time>2026-04-27T12:18:13.947Z</time></trkpt><trkpt lat="39.566930909785285" lon="8.54126183810915"><ele>175.0</ele><time>2026-04-27T12:18:15.947Z</time></trkpt><trkpt lat="39.56693929141893" lon="8.541353749676352"><ele>175.66666666666669</ele><time>2026-04-27T12:18:16.947Z</time></trkpt><trkpt lat="39.56694576637328" lon="8.541455628355223"><ele>176.33333333333334</ele><time>2026-04-27T12:18:17.947Z</time></trkpt><trkpt lat="39.566960272455795" lon="8.541558825160408"><ele>177.0</ele><time>2026-04-27T12:18:18.947Z</time></trkpt><trkpt lat="39.56696160015003" lon="8.541653647842596"><ele>177.66666666666666</ele><time>2026-04-27T12:18:19.947Z</time></trkpt><trkpt lat="39.56696713490023" lon="8.541818516104664"><ele>178.33333333333331</ele><time>2026-04-27T12:18:21.947Z</time></trkpt><trkpt lat="39.566966308141396" lon="8.54191868974657"><ele>179.0</ele><time>2026-04-27T12:18:23.947Z</time></trkpt><trkpt lat="39.56699513939254" lon="8.542025562000573"><ele>180.79999999999998</ele><time>2026-04-27T12:18:25.947Z</time></trkpt><trkpt lat="39.56702863321038" lon="8.542160700643871"><ele>182.6</ele><time>2026-04-27T12:18:27.947Z</time></trkpt><trkpt lat="39.5670232465446" lon="8.54228222698522"><ele>184.4</ele><time>2026-04-27T12:18:28.947Z</time></trkpt><trkpt lat="39.567017666922325" lon="8.542383381962905"><ele>186.2</ele><time>2026-04-27T12:18:29.947Z</time></trkpt><trkpt lat="39.56701573445936" lon="8.542473272027822"><ele>188.0</ele><time>2026-04-27T12:18:31.947Z</time></trkpt><trkpt lat="39.567060821347134" lon="8.54263816598212"><ele>188.0</ele><time>2026-04-27T12:18:33.947Z</time></trkpt><trkpt lat="39.56708634837155" lon="8.542715584950981"><ele>188.0</ele><time>2026-04-27T12:18:34.947Z</time></trkpt><trkpt lat="39.567092422266086" lon="8.542798439239487"><ele>188.0</ele><time>2026-04-27T12:18:35.947Z</time></trkpt><trkpt lat="39.56707455009022" lon="8.542936371750967"><ele>188.0</ele><time>2026-04-27T12:18:37.947Z</time></trkpt><trkpt lat="39.567059603179196" lon="8.543083924401738"><ele>188.0</ele><time>2026-04-27T12:18:39.947Z</time></trkpt><trkpt lat="39.567025250595016" lon="8.543185454405927"><ele>188.0</ele><time>2026-04-27T12:18:40.947Z</time></trkpt><trkpt lat="39.56699584324221" lon="8.543264089157896"><ele>189.83333333333331</ele><time>2026-04-27T12:18:41.947Z</time></trkpt><trkpt lat="39.566967257647654" lon="8.543346997473213"><ele>191.66666666666666</ele><time>2026-04-27T12:18:42.947Z</time></trkpt><trkpt lat="39.56689276397146" lon="8.543441381279115"><ele>193.5</ele><time>2026-04-27T12:18:44.947Z</time></trkpt><trkpt lat="39.56681757143649" lon="8.543477675040682"><ele>195.33333333333331</ele><time>2026-04-27T12:18:46.947Z</time></trkpt><trkpt lat="39.566756579517964" lon="8.543429484421035"><ele>197.16666666666666</ele><time>2026-04-27T12:18:48.947Z</time></trkpt><trkpt lat="39.566703594108795" lon="8.543365105172935"><ele>199.0</ele><time>2026-04-27T12:18:50.947Z</time></trkpt><trkpt lat="39.566629398201904" lon="8.543290791629923"><ele>199.0</ele><time>2026-04-27T12:18:52.947Z</time></trkpt><trkpt lat="39.56656677450692" lon="8.543244123545382"><ele>199.0</ele><time>2026-04-27T12:18:54.947Z</time></trkpt><trkpt lat="39.566506354831056" lon="8.543165141357653"><ele>199.0</ele><time>2026-04-27T12:18:57.947Z</time></trkpt><trkpt lat="39.56642734704903" lon="8.543091148339343"><ele>199.0</ele><time>2026-04-27T12:18:59.947Z</time></trkpt><trkpt lat="39.56632343067286" lon="8.543017224745288"><ele>199.0</ele><time>2026-04-27T12:19:01.947Z</time></trkpt><trkpt lat="39.566222993196874" lon="8.542987284199837"><ele>203.83333333333331</ele><time>2026-04-27T12:19:02.947Z</time></trkpt><trkpt lat="39.56613642619726" lon="8.542962343853702"><ele>208.66666666666666</ele><time>2026-04-27T12:19:03.948Z</time></trkpt><trkpt lat="39.566064994040076" lon="8.542943841332148"><ele>213.5</ele><time>2026-04-27T12:19:04.948Z</time></trkpt><trkpt lat="39.56598058955454" lon="8.542930509082913"><ele>218.33333333333331</ele><time>2026-04-27T12:19:06.948Z</time></trkpt><trkpt lat="39.56591281504973" lon="8.542949845827565"><ele>223.16666666666666</ele><time>2026-04-27T12:19:07.948Z</time></trkpt><trkpt lat="39.565840750892434" lon="8.542986879768868"><ele>228.0</ele><time>2026-04-27T12:19:08.948Z</time></trkpt><trkpt lat="39.56572998069424" lon="8.542993775581108"><ele>228.0</ele><time>2026-04-27T12:19:10.948Z</time></trkpt><trkpt lat="39.56566647298854" lon="8.542995460718062"><ele>228.0</ele><time>2026-04-27T12:19:11.948Z</time></trkpt><trkpt lat="39.5655899677111" lon="8.543003959103562"><ele>228.0</ele><time>2026-04-27T12:19:12.948Z</time></trkpt><trkpt lat="39.56551729496645" lon="8.543010195930123"><ele>228.0</ele><time>2026-04-27T12:19:13.948Z</time></trkpt><trkpt lat="39.565452668449325" lon="8.543010855287463"><ele>228.0</ele><time>2026-04-27T12:19:14.948Z</time></trkpt><trkpt lat="39.565326577949044" lon="8.543045952299662"><ele>228.0</ele><time>2026-04-27T12:19:16.948Z</time></trkpt><trkpt lat="39.56526597831827" lon="8.54307436017615"><ele>231.0</ele><time>2026-04-27T12:19:17.948Z</time></trkpt><trkpt lat="39.565147317091245" lon="8.543126843080682"><ele>234.0</ele><time>2026-04-27T12:19:19.948Z</time></trkpt><trkpt lat="39.56503310940331" lon="8.543161232216612"><ele>237.0</ele><time>2026-04-27T12:19:21.948Z</time></trkpt><trkpt lat="39.56488930542981" lon="8.543176338201448"><ele>240.0</ele><time>2026-04-27T12:19:23.948Z</time></trkpt><trkpt lat="39.564795932330284" lon="8.543180437748175"><ele>240.0</ele><time>2026-04-27T12:19:25.948Z</time></trkpt><trkpt lat="39.564839755513894" lon="8.543273891858634"><ele>240.0</ele><time>2026-04-27T12:19:30.948Z</time></trkpt><trkpt lat="39.564914698105284" lon="8.543363513676052"><ele>240.0</ele><time>2026-04-27T12:19:32.948Z</time></trkpt><trkpt lat="39.56500427953779" lon="8.543443590499017"><ele>240.0</ele><time>2026-04-27T12:19:34.948Z</time></trkpt><trkpt lat="39.565083566688955" lon="8.543520533805511"><ele>240.0</ele><time>2026-04-27T12:19:36.948Z</time></trkpt><trkpt lat="39.565143555122894" lon="8.543637734002168"><ele>240.0</ele><time>2026-04-27T12:19:38.948Z</time></trkpt><trkpt lat="39.565174308041705" lon="8.543709209095002"><ele>240.0</ele><time>2026-04-27T12:19:39.948Z</time></trkpt><trkpt lat="39.56518144141745" lon="8.543848901923766"><ele>240.0</ele><time>2026-04-27T12:19:41.947Z</time></trkpt><trkpt lat="39.56514678853727" lon="8.543930000739827"><ele>240.0</ele><time>2026-04-27T12:19:43.947Z</time></trkpt><trkpt lat="39.56506145861055" lon="8.543961834411457"><ele>240.0</ele><time>2026-04-27T12:19:45.947Z</time></trkpt><trkpt lat="39.56497427106456" lon="8.543929403978625"><ele>240.0</ele><time>2026-04-27T12:19:47.947Z</time></trkpt><trkpt lat="39.56484808477068" lon="8.543911025444372"><ele>241.0</ele><time>2026-04-27T12:19:49.946Z</time></trkpt><trkpt lat="39.56477678930215" lon="8.543899883346999"><ele>242.0</ele><time>2026-04-27T12:19:50.947Z</time></trkpt><trkpt lat="39.564706554221665" lon="8.543894868949035"><ele>243.0</ele><time>2026-04-27T12:19:51.946Z</time></trkpt><trkpt lat="39.56464351724813" lon="8.543906045115255"><ele>244.0</ele><time>2026-04-27T12:19:52.946Z</time></trkpt><trkpt lat="39.564570403395514" lon="8.543897144019475"><ele>245.0</ele><time>2026-04-27T12:19:53.947Z</time></trkpt><trkpt lat="39.56449778675373" lon="8.543885781140755"><ele>246.0</ele><time>2026-04-27T12:19:54.947Z</time></trkpt><trkpt lat="39.56443321485982" lon="8.543866546817256"><ele>247.0</ele><time>2026-04-27T12:19:55.947Z</time></trkpt><trkpt lat="39.564370443919145" lon="8.543857691956095"><ele>249.2</ele><time>2026-04-27T12:19:56.947Z</time></trkpt><trkpt lat="39.564303793737615" lon="8.543871254648268"><ele>251.39999999999998</ele><time>2026-04-27T12:19:57.947Z</time></trkpt><trkpt lat="39.564187990005074" lon="8.54383697636185"><ele>253.60000000000002</ele><time>2026-04-27T12:19:59.947Z</time></trkpt><trkpt lat="39.564098466159855" lon="8.543717072919836"><ele>255.8</ele><time>2026-04-27T12:20:01.947Z</time></trkpt><trkpt lat="39.56401564291777" lon="8.543613980557854"><ele>258.0</ele><time>2026-04-27T12:20:03.947Z</time></trkpt><trkpt lat="39.563906936095044" lon="8.543574221093069"><ele>258.0</ele><time>2026-04-27T12:20:05.947Z</time></trkpt><trkpt lat="39.56383293429823" lon="8.543576201407744"><ele>258.0</ele><time>2026-04-27T12:20:06.947Z</time></trkpt><trkpt lat="39.56374679362143" lon="8.5436110401574"><ele>258.0</ele><time>2026-04-27T12:20:07.947Z</time></trkpt><trkpt lat="39.56368981054969" lon="8.543653677657755"><ele>258.0</ele><time>2026-04-27T12:20:08.947Z</time></trkpt><trkpt lat="39.563633121234176" lon="8.543713262107488"><ele>258.0</ele><time>2026-04-27T12:20:09.947Z</time></trkpt><trkpt lat="39.563593935716064" lon="8.54379472211085"><ele>258.0</ele><time>2026-04-27T12:20:10.947Z</time></trkpt><trkpt lat="39.563549126038836" lon="8.543939820864846"><ele>258.8333333333333</ele><time>2026-04-27T12:20:12.947Z</time></trkpt><trkpt lat="39.56349808563149" lon="8.544017578848797"><ele>259.6666666666667</ele><time>2026-04-27T12:20:13.947Z</time></trkpt><trkpt lat="39.56342938631495" lon="8.544079715155497"><ele>260.5</ele><time>2026-04-27T12:20:14.947Z</time></trkpt><trkpt lat="39.56336140980264" lon="8.544123166459823"><ele>261.33333333333337</ele><time>2026-04-27T12:20:15.947Z</time></trkpt><trkpt lat="39.56328994248692" lon="8.54417777355491"><ele>262.1666666666667</ele><time>2026-04-27T12:20:16.947Z</time></trkpt><trkpt lat="39.56323074564136" lon="8.544229352713431"><ele>263.0</ele><time>2026-04-27T12:20:17.947Z</time></trkpt><trkpt lat="39.56317058133528" lon="8.544272085404199"><ele>263.0</ele><time>2026-04-27T12:20:18.947Z</time></trkpt><trkpt lat="39.563098384827946" lon="8.544288029065404"><ele>263.0</ele><time>2026-04-27T12:20:19.947Z</time></trkpt><trkpt lat="39.56303218682387" lon="8.544311358079737"><ele>263.0</ele><time>2026-04-27T12:20:20.947Z</time></trkpt><trkpt lat="39.56297684833332" lon="8.544364359566698"><ele>263.0</ele><time>2026-04-27T12:20:21.947Z</time></trkpt><trkpt lat="39.56290700005954" lon="8.544441529624288"><ele>263.0</ele><time>2026-04-27T12:20:22.947Z</time></trkpt><trkpt lat="39.562833029605756" lon="8.544512251890339"><ele>263.0</ele><time>2026-04-27T12:20:23.947Z</time></trkpt><trkpt lat="39.56273096201472" lon="8.54456385450702"><ele>262.6</ele><time>2026-04-27T12:20:24.947Z</time></trkpt><trkpt lat="39.562627970378806" lon="8.544602736987322"><ele>262.20000000000005</ele><time>2026-04-27T12:20:25.947Z</time></trkpt><trkpt lat="39.56252263820742" lon="8.544617932669441"><ele>261.8</ele><time>2026-04-27T12:20:26.947Z</time></trkpt><trkpt lat="39.56241967114861" lon="8.544633673149807"><ele>261.40000000000003</ele><time>2026-04-27T12:20:27.947Z</time></trkpt><trkpt lat="39.56230628539651" lon="8.544641628576143"><ele>261.0</ele><time>2026-04-27T12:20:28.947Z</time></trkpt><trkpt lat="39.562213789815104" lon="8.544666659993108"><ele>261.0</ele><time>2026-04-27T12:20:29.947Z</time></trkpt><trkpt lat="39.562122493188255" lon="8.544695118506974"><ele>261.0</ele><time>2026-04-27T12:20:30.947Z</time></trkpt><trkpt lat="39.56202515375861" lon="8.544719837467044"><ele>261.0</ele><time>2026-04-27T12:20:31.947Z</time></trkpt><trkpt lat="39.561914270244145" lon="8.544764438382355"><ele>261.0</ele><time>2026-04-27T12:20:32.947Z</time></trkpt><trkpt lat="39.56181257989289" lon="8.544810760539239"><ele>261.0</ele><time>2026-04-27T12:20:33.947Z</time></trkpt><trkpt lat="39.56172570297933" lon="8.544874292526858"><ele>263.6</ele><time>2026-04-27T12:20:34.947Z</time></trkpt><trkpt lat="39.56164582727865" lon="8.54495326123456"><ele>266.20000000000005</ele><time>2026-04-27T12:20:35.947Z</time></trkpt><trkpt lat="39.561565391842386" lon="8.545038052441043"><ele>268.79999999999995</ele><time>2026-04-27T12:20:36.947Z</time></trkpt><trkpt lat="39.561486815848895" lon="8.545108522729626"><ele>271.4</ele><time>2026-04-27T12:20:37.947Z</time></trkpt><trkpt lat="39.561387256712045" lon="8.54516339625008"><ele>274.0</ele><time>2026-04-27T12:20:38.947Z</time></trkpt><trkpt lat="39.56132011155092" lon="8.545244084031328"><ele>274.0</ele><time>2026-04-27T12:20:39.947Z</time></trkpt><trkpt lat="39.561252440249355" lon="8.545334035128713"><ele>274.0</ele><time>2026-04-27T12:20:40.947Z</time></trkpt><trkpt lat="39.56119285061371" lon="8.54542308259803"><ele>274.0</ele><time>2026-04-27T12:20:41.947Z</time></trkpt><trkpt lat="39.56112353762896" lon="8.545517305344463"><ele>274.0</ele><time>2026-04-27T12:20:42.947Z</time></trkpt><trkpt lat="39.56106408947047" lon="8.545605677517964"><ele>274.0</ele><time>2026-04-27T12:20:43.947Z</time></trkpt><trkpt lat="39.56100589068844" lon="8.545710762154068"><ele>277.4</ele><time>2026-04-27T12:20:44.947Z</time></trkpt><trkpt lat="39.56095559035221" lon="8.545784403682427"><ele>280.79999999999995</ele><time>2026-04-27T12:20:45.947Z</time></trkpt><trkpt lat="39.56082783070077" lon="8.545823576641347"><ele>284.20000000000005</ele><time>2026-04-27T12:20:47.947Z</time></trkpt><trkpt lat="39.56073518903287" lon="8.545810474955188"><ele>287.6</ele><time>2026-04-27T12:20:48.947Z</time></trkpt><trkpt lat="39.560637624657375" lon="8.545801036981398"><ele>291.0</ele><time>2026-04-27T12:20:49.947Z</time></trkpt><trkpt lat="39.56053329222424" lon="8.54578925840026"><ele>291.0</ele><time>2026-04-27T12:20:50.947Z</time></trkpt><trkpt lat="39.56042737178206" lon="8.545780482486993"><ele>291.0</ele><time>2026-04-27T12:20:51.947Z</time></trkpt><trkpt lat="39.560342062534524" lon="8.54575185869062"><ele>291.0</ele><time>2026-04-27T12:20:52.947Z</time></trkpt><trkpt lat="39.56026857388215" lon="8.545692570829516"><ele>291.0</ele><time>2026-04-27T12:20:53.947Z</time></trkpt><trkpt lat="39.560191492549514" lon="8.545612230389176"><ele>291.0</ele><time>2026-04-27T12:20:54.947Z</time></trkpt><trkpt lat="39.560102114504936" lon="8.545522999374114"><ele>290.8333333333333</ele><time>2026-04-27T12:20:55.947Z</time></trkpt><trkpt lat="39.560017382127114" lon="8.545443220792256"><ele>290.6666666666667</ele><time>2026-04-27T12:20:56.948Z</time></trkpt><trkpt lat="39.559945710077606" lon="8.545374022046872"><ele>290.5</ele><time>2026-04-27T12:20:57.948Z</time></trkpt><trkpt lat="39.55988250422315" lon="8.54530847741321"><ele>290.33333333333337</ele><time>2026-04-27T12:20:58.948Z</time></trkpt><trkpt lat="39.55981330856018" lon="8.54531145210607"><ele>290.1666666666667</ele><time>2026-04-27T12:21:02.948Z</time></trkpt><trkpt lat="39.55978211098749" lon="8.545425934148623"><ele>290.0</ele><time>2026-04-27T12:21:04.948Z</time></trkpt><trkpt lat="39.55978376114248" lon="8.545527209776356"><ele>291.4</ele><time>2026-04-27T12:21:05.948Z</time></trkpt><trkpt lat="39.55977620423859" lon="8.545665781052316"><ele>292.8</ele><time>2026-04-27T12:21:06.948Z</time></trkpt><trkpt lat="39.55976143890109" lon="8.545790263318978"><ele>294.2</ele><time>2026-04-27T12:21:07.948Z</time></trkpt><trkpt lat="39.55971530065089" lon="8.545932488633273"><ele>295.6</ele><time>2026-04-27T12:21:08.948Z</time></trkpt><trkpt lat="39.55972189077554" lon="8.546068796997355"><ele>297.0</ele><time>2026-04-27T12:21:09.948Z</time></trkpt><trkpt lat="39.559736481619005" lon="8.54619382393048"><ele>297.8</ele><time>2026-04-27T12:21:10.948Z</time></trkpt><trkpt lat="39.559766834063836" lon="8.546327707044432"><ele>298.6</ele><time>2026-04-27T12:21:11.948Z</time></trkpt><trkpt lat="39.559796849723284" lon="8.546452584169383"><ele>299.40000000000003</ele><time>2026-04-27T12:21:12.948Z</time></trkpt><trkpt lat="39.559820659780826" lon="8.546584547450607"><ele>300.2</ele><time>2026-04-27T12:21:13.948Z</time></trkpt><trkpt lat="39.55984333367184" lon="8.54673386063416"><ele>301.0</ele><time>2026-04-27T12:21:14.948Z</time></trkpt><trkpt lat="39.559882032423616" lon="8.546875501286111"><ele>301.0</ele><time>2026-04-27T12:21:15.948Z</time></trkpt><trkpt lat="39.55991208963982" lon="8.547032389385308"><ele>301.0</ele><time>2026-04-27T12:21:16.948Z</time></trkpt><trkpt lat="39.55996040297933" lon="8.547180621955526"><ele>301.0</ele><time>2026-04-27T12:21:17.948Z</time></trkpt><trkpt lat="39.559991743299875" lon="8.547320935333659"><ele>301.0</ele><time>2026-04-27T12:21:18.948Z</time></trkpt><trkpt lat="39.56000752587231" lon="8.547458808647717"><ele>301.0</ele><time>2026-04-27T12:21:19.948Z</time></trkpt><trkpt lat="39.559994332386694" lon="8.547601905580514"><ele>301.0</ele><time>2026-04-27T12:21:20.948Z</time></trkpt><trkpt lat="39.55997803927389" lon="8.547758862523944"><ele>301.0</ele><time>2026-04-27T12:21:21.948Z</time></trkpt><trkpt lat="39.55996890305689" lon="8.547918222212138"><ele>301.0</ele><time>2026-04-27T12:21:22.948Z</time></trkpt><trkpt lat="39.559972661468045" lon="8.548085720828603"><ele>301.0</ele><time>2026-04-27T12:21:23.948Z</time></trkpt><trkpt lat="39.559981243254796" lon="8.548248634929436"><ele>301.0</ele><time>2026-04-27T12:21:24.948Z</time></trkpt><trkpt lat="39.56000596691533" lon="8.54840461458178"><ele>301.0</ele><time>2026-04-27T12:21:25.948Z</time></trkpt><trkpt lat="39.56000971086561" lon="8.548543099010988"><ele>301.0</ele><time>2026-04-27T12:21:26.948Z</time></trkpt><trkpt lat="39.55999228223036" lon="8.54865414960535"><ele>301.0</ele><time>2026-04-27T12:21:27.948Z</time></trkpt><trkpt lat="39.55993908803321" lon="8.548744560114235"><ele>300.75</ele><time>2026-04-27T12:21:28.948Z</time></trkpt><trkpt lat="39.5598668384649" lon="8.548841628818883"><ele>300.5</ele><time>2026-04-27T12:21:29.948Z</time></trkpt><trkpt lat="39.55979243185798" lon="8.548963108185264"><ele>300.25</ele><time>2026-04-27T12:21:30.948Z</time></trkpt><trkpt lat="39.55973453319865" lon="8.549112086629089"><ele>300.0</ele><time>2026-04-27T12:21:31.948Z</time></trkpt><trkpt lat="39.55967034037434" lon="8.549290606740035"><ele>300.0</ele><time>2026-04-27T12:21:32.948Z</time></trkpt><trkpt lat="39.559581494801435" lon="8.549453159694336"><ele>300.0</ele><time>2026-04-27T12:21:33.948Z</time></trkpt><trkpt lat="39.55949686630926" lon="8.549624405448153"><ele>300.0</ele><time>2026-04-27T12:21:34.948Z</time></trkpt><trkpt lat="39.5594222281665" lon="8.549784538513318"><ele>302.8</ele><time>2026-04-27T12:21:35.948Z</time></trkpt><trkpt lat="39.55937715599847" lon="8.549925267870856"><ele>305.6</ele><time>2026-04-27T12:21:36.948Z</time></trkpt><trkpt lat="39.55932141484616" lon="8.550043360486576"><ele>308.4</ele><time>2026-04-27T12:21:37.948Z</time></trkpt><trkpt lat="39.55926170606139" lon="8.550140175107202"><ele>311.2</ele><time>2026-04-27T12:21:38.948Z</time></trkpt><trkpt lat="39.559188635882684" lon="8.550216029728258"><ele>314.0</ele><time>2026-04-27T12:21:39.948Z</time></trkpt><trkpt lat="39.5590985920706" lon="8.550235290638904"><ele>314.0</ele><time>2026-04-27T12:21:40.948Z</time></trkpt><trkpt lat="39.55901494242588" lon="8.550277495142467"><ele>314.0</ele><time>2026-04-27T12:21:41.948Z</time></trkpt><trkpt lat="39.55894838916355" lon="8.550330933334298"><ele>314.0</ele><time>2026-04-27T12:21:42.948Z</time></trkpt><trkpt lat="39.55890936499557" lon="8.55042183006867"><ele>314.0</ele><time>2026-04-27T12:21:43.948Z</time></trkpt><trkpt lat="39.55886415618066" lon="8.5505219225326"><ele>314.0</ele><time>2026-04-27T12:21:44.948Z</time></trkpt><trkpt lat="39.5588214377437" lon="8.55063984139176"><ele>314.0</ele><time>2026-04-27T12:21:45.948Z</time></trkpt><trkpt lat="39.558732499305265" lon="8.550779037574278"><ele>313.5</ele><time>2026-04-27T12:21:46.948Z</time></trkpt><trkpt lat="39.558650841449946" lon="8.55093698120094"><ele>313.0</ele><time>2026-04-27T12:21:47.948Z</time></trkpt><trkpt lat="39.558585697766325" lon="8.55111757919222"><ele>312.5</ele><time>2026-04-27T12:21:48.947Z</time></trkpt><trkpt lat="39.55851193251713" lon="8.551276994683393"><ele>312.0</ele><time>2026-04-27T12:21:49.947Z</time></trkpt><trkpt lat="39.55846376150716" lon="8.551459556422442"><ele>312.0</ele><time>2026-04-27T12:21:50.948Z</time></trkpt><trkpt lat="39.558403418350196" lon="8.551637365741156"><ele>312.0</ele><time>2026-04-27T12:21:51.947Z</time></trkpt><trkpt lat="39.55831990530217" lon="8.551773250731953"><ele>312.0</ele><time>2026-04-27T12:21:52.947Z</time></trkpt><trkpt lat="39.55824799255989" lon="8.551900045617685"><ele>312.0</ele><time>2026-04-27T12:21:53.947Z</time></trkpt><trkpt lat="39.55818939675037" lon="8.552032935681277"><ele>311.75</ele><time>2026-04-27T12:21:54.947Z</time></trkpt><trkpt lat="39.55812976658674" lon="8.552181058854952"><ele>311.5</ele><time>2026-04-27T12:21:55.947Z</time></trkpt><trkpt lat="39.558091324820595" lon="8.552334450614135"><ele>311.25</ele><time>2026-04-27T12:21:56.947Z</time></trkpt><trkpt lat="39.558086963411654" lon="8.552481055513216"><ele>311.0</ele><time>2026-04-27T12:21:57.947Z</time></trkpt><trkpt lat="39.55803901093375" lon="8.552603560506197"><ele>311.0</ele><time>2026-04-27T12:21:58.947Z</time></trkpt><trkpt lat="39.557980130578684" lon="8.552744087317516"><ele>311.0</ele><time>2026-04-27T12:21:59.947Z</time></trkpt><trkpt lat="39.55790719580554" lon="8.55288208491691"><ele>311.0</ele><time>2026-04-27T12:22:00.947Z</time></trkpt><trkpt lat="39.55783210282864" lon="8.553035529190714"><ele>311.0</ele><time>2026-04-27T12:22:01.947Z</time></trkpt><trkpt lat="39.55777251292746" lon="8.553202681817996"><ele>310.5</ele><time>2026-04-27T12:22:02.947Z</time></trkpt><trkpt lat="39.557738686741125" lon="8.553347895517929"><ele>310.0</ele><time>2026-04-27T12:22:03.947Z</time></trkpt><trkpt lat="39.55768644463617" lon="8.553490540417933"><ele>309.5</ele><time>2026-04-27T12:22:04.947Z</time></trkpt><trkpt lat="39.557633449933704" lon="8.553622872579984"><ele>309.0</ele><time>2026-04-27T12:22:05.947Z</time></trkpt><trkpt lat="39.55756585406647" lon="8.553752269669031"><ele>309.0</ele><time>2026-04-27T12:22:06.947Z</time></trkpt><trkpt lat="39.55749358171923" lon="8.553851722736473"><ele>309.0</ele><time>2026-04-27T12:22:07.947Z</time></trkpt><trkpt lat="39.55742065976678" lon="8.553984403752551"><ele>309.0</ele><time>2026-04-27T12:22:08.947Z</time></trkpt><trkpt lat="39.55738117970874" lon="8.554127090661945"><ele>309.0</ele><time>2026-04-27T12:22:09.947Z</time></trkpt><trkpt lat="39.557388685601204" lon="8.55426990167588"><ele>309.0</ele><time>2026-04-27T12:22:10.947Z</time></trkpt><trkpt lat="39.55738283744725" lon="8.55440643077514"><ele>309.0</ele><time>2026-04-27T12:22:11.947Z</time></trkpt><trkpt lat="39.55737930766831" lon="8.554564392829901"><ele>309.0</ele><time>2026-04-27T12:22:12.947Z</time></trkpt><trkpt lat="39.55738531684654" lon="8.554704462840094"><ele>309.0</ele><time>2026-04-27T12:22:13.947Z</time></trkpt><trkpt lat="39.55744090618318" lon="8.554833016718648"><ele>309.0</ele><time>2026-04-27T12:22:14.947Z</time></trkpt><trkpt lat="39.557444838955256" lon="8.554967990923151"><ele>309.0</ele><time>2026-04-27T12:22:15.947Z</time></trkpt><trkpt lat="39.55746122211365" lon="8.555112730136136"><ele>309.0</ele><time>2026-04-27T12:22:16.947Z</time></trkpt><trkpt lat="39.557470087595256" lon="8.5552733011743"><ele>309.0</ele><time>2026-04-27T12:22:17.947Z</time></trkpt><trkpt lat="39.55747191528713" lon="8.5554435085049"><ele>309.0</ele><time>2026-04-27T12:22:18.948Z</time></trkpt><trkpt lat="39.557469966289084" lon="8.55562002569999"><ele>309.0</ele><time>2026-04-27T12:22:19.948Z</time></trkpt><trkpt lat="39.55746292432383" lon="8.555796522409896"><ele>309.0</ele><time>2026-04-27T12:22:20.948Z</time></trkpt><trkpt lat="39.55745415222397" lon="8.55596519182931"><ele>309.0</ele><time>2026-04-27T12:22:21.948Z</time></trkpt><trkpt lat="39.557444390722786" lon="8.556110715269458"><ele>309.0</ele><time>2026-04-27T12:22:22.948Z</time></trkpt><trkpt lat="39.55743990165904" lon="8.55624984709717"><ele>309.0</ele><time>2026-04-27T12:22:23.948Z</time></trkpt><trkpt lat="39.557401620095526" lon="8.55638230192092"><ele>309.0</ele><time>2026-04-27T12:22:24.948Z</time></trkpt><trkpt lat="39.55732391610962" lon="8.556482356499178"><ele>309.0</ele><time>2026-04-27T12:22:25.948Z</time></trkpt><trkpt lat="39.55725078611954" lon="8.556563916786132"><ele>309.0</ele><time>2026-04-27T12:22:26.948Z</time></trkpt><trkpt lat="39.557148335858784" lon="8.556613993568781"><ele>309.0</ele><time>2026-04-27T12:22:27.948Z</time></trkpt><trkpt lat="39.557065091567004" lon="8.556697073170888"><ele>311.0</ele><time>2026-04-27T12:22:28.948Z</time></trkpt><trkpt lat="39.55698120857952" lon="8.556802108123177"><ele>313.0</ele><time>2026-04-27T12:22:29.948Z</time></trkpt><trkpt lat="39.55691579046633" lon="8.556925579544277"><ele>315.0</ele><time>2026-04-27T12:22:30.948Z</time></trkpt><trkpt lat="39.556873659286616" lon="8.557044120543246"><ele>317.0</ele><time>2026-04-27T12:22:31.948Z</time></trkpt><trkpt lat="39.55683857129428" lon="8.55717642442192"><ele>319.0</ele><time>2026-04-27T12:22:32.948Z</time></trkpt><trkpt lat="39.556804446632476" lon="8.557306094969826"><ele>320.75</ele><time>2026-04-27T12:22:33.948Z</time></trkpt><trkpt lat="39.55677068689185" lon="8.557427012150468"><ele>322.5</ele><time>2026-04-27T12:22:34.948Z</time></trkpt><trkpt lat="39.55672853228685" lon="8.557526561349208"><ele>324.25</ele><time>2026-04-27T12:22:36.948Z</time></trkpt><trkpt lat="39.55668300604141" lon="8.557671877319734"><ele>326.0</ele><time>2026-04-27T12:22:37.948Z</time></trkpt><trkpt lat="39.55656096751299" lon="8.55781486443796"><ele>326.0</ele><time>2026-04-27T12:22:38.948Z</time></trkpt><trkpt lat="39.556457936241934" lon="8.55786800038085"><ele>326.0</ele><time>2026-04-27T12:22:39.948Z</time></trkpt><trkpt lat="39.556366305667055" lon="8.557910526534641"><ele>326.0</ele><time>2026-04-27T12:22:40.948Z</time></trkpt><trkpt lat="39.55628894537914" lon="8.557959361413245"><ele>326.0</ele><time>2026-04-27T12:22:41.948Z</time></trkpt><trkpt lat="39.55621416737169" lon="8.558016569673569"><ele>326.0</ele><time>2026-04-27T12:22:42.948Z</time></trkpt><trkpt lat="39.556162930515306" lon="8.55809447085982"><ele>326.6666666666667</ele><time>2026-04-27T12:22:43.948Z</time></trkpt><trkpt lat="39.55611785148217" lon="8.558183862249678"><ele>327.33333333333337</ele><time>2026-04-27T12:22:44.948Z</time></trkpt><trkpt lat="39.55607397885541" lon="8.558287209529016"><ele>328.0</ele><time>2026-04-27T12:22:45.948Z</time></trkpt><trkpt lat="39.55603429301872" lon="8.558389210338044"><ele>328.6666666666667</ele><time>2026-04-27T12:22:46.948Z</time></trkpt><trkpt lat="39.555965974921854" lon="8.558459866154665"><ele>329.3333333333333</ele><time>2026-04-27T12:22:47.948Z</time></trkpt><trkpt lat="39.555885653480196" lon="8.558505444886807"><ele>330.0</ele><time>2026-04-27T12:22:48.948Z</time></trkpt><trkpt lat="39.555795997588575" lon="8.558530044941945"><ele>330.0</ele><time>2026-04-27T12:22:49.948Z</time></trkpt><trkpt lat="39.55570694480206" lon="8.558556020584467"><ele>330.0</ele><time>2026-04-27T12:22:50.948Z</time></trkpt><trkpt lat="39.555633445183695" lon="8.558595243236628"><ele>330.0</ele><time>2026-04-27T12:22:51.948Z</time></trkpt><trkpt lat="39.55557093730018" lon="8.558626377215234"><ele>330.0</ele><time>2026-04-27T12:22:52.948Z</time></trkpt><trkpt lat="39.55552077469877" lon="8.558685781806872"><ele>330.0</ele><time>2026-04-27T12:22:53.948Z</time></trkpt><trkpt lat="39.555484868554196" lon="8.558818026789154"><ele>330.0</ele><time>2026-04-27T12:22:54.948Z</time></trkpt><trkpt lat="39.555467902819686" lon="8.55896152860262"><ele>328.0</ele><time>2026-04-27T12:22:55.948Z</time></trkpt><trkpt lat="39.555464777904994" lon="8.55911375126441"><ele>326.0</ele><time>2026-04-27T12:22:56.948Z</time></trkpt><trkpt lat="39.555475547804825" lon="8.559275246894899"><ele>324.0</ele><time>2026-04-27T12:22:57.948Z</time></trkpt><trkpt lat="39.55548523694033" lon="8.559426438528455"><ele>322.0</ele><time>2026-04-27T12:22:58.948Z</time></trkpt><trkpt lat="39.55548777557701" lon="8.55957688787511"><ele>322.0</ele><time>2026-04-27T12:22:59.948Z</time></trkpt><trkpt lat="39.555490188305825" lon="8.559731480327823"><ele>322.0</ele><time>2026-04-27T12:23:00.948Z</time></trkpt><trkpt lat="39.55545964937806" lon="8.55987556783409"><ele>322.0</ele><time>2026-04-27T12:23:01.948Z</time></trkpt><trkpt lat="39.55544578872875" lon="8.560022162807892"><ele>322.0</ele><time>2026-04-27T12:23:02.948Z</time></trkpt><trkpt lat="39.55543733527854" lon="8.560155767679124"><ele>322.0</ele><time>2026-04-27T12:23:03.948Z</time></trkpt><trkpt lat="39.5554492793302" lon="8.560292986168019"><ele>322.0</ele><time>2026-04-27T12:23:04.948Z</time></trkpt><trkpt lat="39.55552725948531" lon="8.560410326722186"><ele>322.0</ele><time>2026-04-27T12:23:05.948Z</time></trkpt><trkpt lat="39.555578854550696" lon="8.560519203341004"><ele>322.0</ele><time>2026-04-27T12:23:06.948Z</time></trkpt><trkpt lat="39.555608779214715" lon="8.560632460097914"><ele>322.0</ele><time>2026-04-27T12:23:07.948Z</time></trkpt><trkpt lat="39.55557488027356" lon="8.560747039773467"><ele>322.0</ele><time>2026-04-27T12:23:08.948Z</time></trkpt><trkpt lat="39.55555677127854" lon="8.56087184157251"><ele>322.0</ele><time>2026-04-27T12:23:09.948Z</time></trkpt><trkpt lat="39.555524819767655" lon="8.560989705205808"><ele>322.0</ele><time>2026-04-27T12:23:10.948Z</time></trkpt><trkpt lat="39.55552543597065" lon="8.56108509266732"><ele>322.0</ele><time>2026-04-27T12:23:11.948Z</time></trkpt><trkpt lat="39.55556614198017" lon="8.561206782379706"><ele>322.0</ele><time>2026-04-27T12:23:12.948Z</time></trkpt><trkpt lat="39.5556361583331" lon="8.56130229974953"><ele>322.0</ele><time>2026-04-27T12:23:13.948Z</time></trkpt><trkpt lat="39.55566495398125" lon="8.561408764009938"><ele>322.0</ele><time>2026-04-27T12:23:14.948Z</time></trkpt><trkpt lat="39.555746645368046" lon="8.561507434799333"><ele>322.0</ele><time>2026-04-27T12:23:15.948Z</time></trkpt><trkpt lat="39.555813921950076" lon="8.561623386580813"><ele>322.0</ele><time>2026-04-27T12:23:16.948Z</time></trkpt><trkpt lat="39.55588033302719" lon="8.56173603257286"><ele>322.0</ele><time>2026-04-27T12:23:17.948Z</time></trkpt><trkpt lat="39.55592436293307" lon="8.561850749256148"><ele>322.0</ele><time>2026-04-27T12:23:18.948Z</time></trkpt><trkpt lat="39.55597244713428" lon="8.561944262125188"><ele>322.0</ele><time>2026-04-27T12:23:19.948Z</time></trkpt><trkpt lat="39.55600195353085" lon="8.562035782402603"><ele>322.0</ele><time>2026-04-27T12:23:20.948Z</time></trkpt><trkpt lat="39.556030953980176" lon="8.56211181555111"><ele>322.0</ele><time>2026-04-27T12:23:21.948Z</time></trkpt><trkpt lat="39.55597697094274" lon="8.562191854097613"><ele>322.0</ele><time>2026-04-27T12:23:22.948Z</time></trkpt><trkpt lat="39.55591534288054" lon="8.562237874806426"><ele>322.0</ele><time>2026-04-27T12:23:23.948Z</time></trkpt><trkpt lat="39.55586378705578" lon="8.562311357643386"><ele>322.6</ele><time>2026-04-27T12:23:24.949Z</time></trkpt><trkpt lat="39.555800872587284" lon="8.562406028425787"><ele>323.20000000000005</ele><time>2026-04-27T12:23:25.949Z</time></trkpt><trkpt lat="39.555751804470525" lon="8.562545644626848"><ele>323.8</ele><time>2026-04-27T12:23:26.949Z</time></trkpt><trkpt lat="39.555755750887606" lon="8.562688304022753"><ele>324.4</ele><time>2026-04-27T12:23:27.949Z</time></trkpt><trkpt lat="39.55577973658305" lon="8.562788391229374"><ele>325.0</ele><time>2026-04-27T12:23:28.949Z</time></trkpt><trkpt lat="39.55584210703773" lon="8.562883712839293"><ele>325.6</ele><time>2026-04-27T12:23:29.949Z</time></trkpt><trkpt lat="39.55591284410109" lon="8.56297829861676"><ele>326.2</ele><time>2026-04-27T12:23:30.949Z</time></trkpt><trkpt lat="39.55597380699513" lon="8.56308464598401"><ele>326.79999999999995</ele><time>2026-04-27T12:23:31.949Z</time></trkpt><trkpt lat="39.55603262796548" lon="8.56321428306951"><ele>327.4</ele><time>2026-04-27T12:23:32.949Z</time></trkpt><trkpt lat="39.55609323947318" lon="8.563338073224939"><ele>328.0</ele><time>2026-04-27T12:23:33.949Z</time></trkpt><trkpt lat="39.556143039918005" lon="8.56346975283513"><ele>328.0</ele><time>2026-04-27T12:23:34.949Z</time></trkpt><trkpt lat="39.55618632270184" lon="8.563608837944885"><ele>328.0</ele><time>2026-04-27T12:23:35.949Z</time></trkpt><trkpt lat="39.556223235937644" lon="8.563722242132455"><ele>328.0</ele><time>2026-04-27T12:23:36.949Z</time></trkpt><trkpt lat="39.556240851947614" lon="8.563832180573115"><ele>328.0</ele><time>2026-04-27T12:23:37.949Z</time></trkpt><trkpt lat="39.55622315993147" lon="8.563934070593382"><ele>328.0</ele><time>2026-04-27T12:23:38.949Z</time></trkpt><trkpt lat="39.556174909395615" lon="8.56403320719573"><ele>329.0</ele><time>2026-04-27T12:23:39.949Z</time></trkpt><trkpt lat="39.5561254419379" lon="8.564156923967786"><ele>330.0</ele><time>2026-04-27T12:23:40.949Z</time></trkpt><trkpt lat="39.556099961284374" lon="8.564278102298827"><ele>331.0</ele><time>2026-04-27T12:23:41.949Z</time></trkpt><trkpt lat="39.55609838725332" lon="8.564388919130268"><ele>332.0</ele><time>2026-04-27T12:23:42.949Z</time></trkpt><trkpt lat="39.556060634161774" lon="8.564454674854044"><ele>333.0</ele><time>2026-04-27T12:23:43.949Z</time></trkpt><trkpt lat="39.55596225115011" lon="8.56454526986484"><ele>333.0</ele><time>2026-04-27T12:23:45.949Z</time></trkpt><trkpt lat="39.55588176276529" lon="8.56452339578153"><ele>333.0</ele><time>2026-04-27T12:23:46.949Z</time></trkpt><trkpt lat="39.555804728192825" lon="8.564442554100083"><ele>333.0</ele><time>2026-04-27T12:23:47.949Z</time></trkpt><trkpt lat="39.555740483753894" lon="8.56440925773534"><ele>333.0</ele><time>2026-04-27T12:23:48.949Z</time></trkpt><trkpt lat="39.55565051773126" lon="8.564396122490773"><ele>333.0</ele><time>2026-04-27T12:23:49.949Z</time></trkpt><trkpt lat="39.555562894257534" lon="8.56439773319724"><ele>333.0</ele><time>2026-04-27T12:23:50.949Z</time></trkpt><trkpt lat="39.55549338714932" lon="8.564416196623965"><ele>333.0</ele><time>2026-04-27T12:23:51.949Z</time></trkpt><trkpt lat="39.55539609219953" lon="8.564469869361321"><ele>333.0</ele><time>2026-04-27T12:23:53.948Z</time></trkpt><trkpt lat="39.555410970294886" lon="8.56460931198215"><ele>333.0</ele><time>2026-04-27T12:23:55.948Z</time></trkpt><trkpt lat="39.55547695058568" lon="8.564648510446398"><ele>333.0</ele><time>2026-04-27T12:23:56.948Z</time></trkpt><trkpt lat="39.55557842244625" lon="8.564709396867766"><ele>333.0</ele><time>2026-04-27T12:23:58.947Z</time></trkpt><trkpt lat="39.55563197558674" lon="8.564759544012228"><ele>335.0</ele><time>2026-04-27T12:23:59.948Z</time></trkpt><trkpt lat="39.555722082356795" lon="8.564918027197619"><ele>337.0</ele><time>2026-04-27T12:24:01.948Z</time></trkpt><trkpt lat="39.55577085305168" lon="8.565021386771908"><ele>339.0</ele><time>2026-04-27T12:24:02.948Z</time></trkpt><trkpt lat="39.55580661694244" lon="8.565133843353628"><ele>341.0</ele><time>2026-04-27T12:24:03.948Z</time></trkpt><trkpt lat="39.55586071989678" lon="8.565237233947368"><ele>343.0</ele><time>2026-04-27T12:24:04.948Z</time></trkpt><trkpt lat="39.55594534721402" lon="8.565313096470748"><ele>342.5</ele><time>2026-04-27T12:24:05.948Z</time></trkpt><trkpt lat="39.55602302649736" lon="8.565373328152765"><ele>342.0</ele><time>2026-04-27T12:24:06.948Z</time></trkpt><trkpt lat="39.55609821314415" lon="8.56544910049682"><ele>341.5</ele><time>2026-04-27T12:24:07.948Z</time></trkpt><trkpt lat="39.55615862561536" lon="8.565536651656787"><ele>341.0</ele><time>2026-04-27T12:24:08.948Z</time></trkpt><trkpt lat="39.556206855200514" lon="8.565627898914693"><ele>340.5</ele><time>2026-04-27T12:24:09.948Z</time></trkpt><trkpt lat="39.55623363746701" lon="8.565724872224887"><ele>340.0</ele><time>2026-04-27T12:24:10.948Z</time></trkpt><trkpt lat="39.55625333163482" lon="8.56584453348196"><ele>340.0</ele><time>2026-04-27T12:24:11.948Z</time></trkpt><trkpt lat="39.55624404292316" lon="8.565978499337076"><ele>340.0</ele><time>2026-04-27T12:24:12.948Z</time></trkpt><trkpt lat="39.55623376820418" lon="8.5661087030029"><ele>340.0</ele><time>2026-04-27T12:24:13.948Z</time></trkpt><trkpt lat="39.556218587190514" lon="8.566236359206497"><ele>340.0</ele><time>2026-04-27T12:24:14.948Z</time></trkpt><trkpt lat="39.55621826018331" lon="8.566365265371013"><ele>340.0</ele><time>2026-04-27T12:24:15.948Z</time></trkpt><trkpt lat="39.55620146789306" lon="8.566515407101349"><ele>344.75</ele><time>2026-04-27T12:24:16.948Z</time></trkpt><trkpt lat="39.556187525885065" lon="8.566677857991778"><ele>349.5</ele><time>2026-04-27T12:24:17.948Z</time></trkpt><trkpt lat="39.556172191812124" lon="8.566824805113361"><ele>354.25</ele><time>2026-04-27T12:24:18.948Z</time></trkpt><trkpt lat="39.55616126709663" lon="8.566979735443141"><ele>359.0</ele><time>2026-04-27T12:24:19.948Z</time></trkpt><trkpt lat="39.55617034177553" lon="8.567133315248315"><ele>359.75</ele><time>2026-04-27T12:24:20.948Z</time></trkpt><trkpt lat="39.55619314336508" lon="8.567290910446308"><ele>360.5</ele><time>2026-04-27T12:24:21.948Z</time></trkpt><trkpt lat="39.556232092687694" lon="8.567451228534678"><ele>361.25</ele><time>2026-04-27T12:24:22.948Z</time></trkpt><trkpt lat="39.55625812893237" lon="8.567612670176313"><ele>362.0</ele><time>2026-04-27T12:24:23.948Z</time></trkpt><trkpt lat="39.55628213689204" lon="8.56776008977689"><ele>362.5</ele><time>2026-04-27T12:24:24.948Z</time></trkpt><trkpt lat="39.55630246512989" lon="8.567918375681073"><ele>363.0</ele><time>2026-04-27T12:24:25.948Z</time></trkpt><trkpt lat="39.55632865168069" lon="8.568091922990305"><ele>363.5</ele><time>2026-04-27T12:24:26.948Z</time></trkpt><trkpt lat="39.55634617390155" lon="8.56826317313689"><ele>364.0</ele><time>2026-04-27T12:24:27.948Z</time></trkpt><trkpt lat="39.55636160787276" lon="8.568427513090942"><ele>364.0</ele><time>2026-04-27T12:24:28.948Z</time></trkpt><trkpt lat="39.55637649678601" lon="8.568585665441779"><ele>364.0</ele><time>2026-04-27T12:24:29.948Z</time></trkpt><trkpt lat="39.556401156113836" lon="8.568739586725709"><ele>364.0</ele><time>2026-04-27T12:24:30.948Z</time></trkpt><trkpt lat="39.556426835280675" lon="8.56890155558225"><ele>364.0</ele><time>2026-04-27T12:24:31.948Z</time></trkpt><trkpt lat="39.556460359317946" lon="8.569045760562693"><ele>365.0</ele><time>2026-04-27T12:24:32.948Z</time></trkpt><trkpt lat="39.5564995197512" lon="8.569177095313812"><ele>366.0</ele><time>2026-04-27T12:24:33.948Z</time></trkpt><trkpt lat="39.55653017261235" lon="8.569311896813286"><ele>367.0</ele><time>2026-04-27T12:24:34.948Z</time></trkpt><trkpt lat="39.556565132531375" lon="8.569400527456365"><ele>368.0</ele><time>2026-04-27T12:24:35.948Z</time></trkpt><trkpt lat="39.55659486838284" lon="8.569478015325885"><ele>369.0</ele><time>2026-04-27T12:24:36.948Z</time></trkpt><trkpt lat="39.55662227277262" lon="8.569571187003062"><ele>370.0</ele><time>2026-04-27T12:24:38.948Z</time></trkpt><trkpt lat="39.556644454316796" lon="8.569679975600726"><ele>370.75</ele><time>2026-04-27T12:24:40.949Z</time></trkpt><trkpt lat="39.55665484889047" lon="8.56979463462049"><ele>371.5</ele><time>2026-04-27T12:24:42.949Z</time></trkpt><trkpt lat="39.55666686586685" lon="8.569892048297689"><ele>372.25</ele><time>2026-04-27T12:24:45.949Z</time></trkpt><trkpt lat="39.55686486083956" lon="8.570029616429329"><ele>373.0</ele><time>2026-04-27T12:26:12.949Z</time></trkpt><trkpt lat="39.55690744960992" lon="8.57010081628761"><ele>373.0</ele><time>2026-04-27T12:26:15.949Z</time></trkpt><trkpt lat="39.556953949191985" lon="8.570159567713855"><ele>373.0</ele><time>2026-04-27T12:26:18.949Z</time></trkpt><trkpt lat="39.55699669936929" lon="8.570222544593543"><ele>373.0</ele><time>2026-04-27T12:26:22.949Z</time></trkpt><trkpt lat="39.557061695791354" lon="8.57036763949961"><ele>373.0</ele><time>2026-04-27T12:28:07.948Z</time></trkpt><trkpt lat="39.55709667200138" lon="8.570542989000105"><ele>373.0</ele><time>2026-04-27T12:28:09.949Z</time></trkpt><trkpt lat="39.5571065102659" lon="8.570660903456002"><ele>372.3333333333333</ele><time>2026-04-27T12:28:10.949Z</time></trkpt><trkpt lat="39.55711422569747" lon="8.570791922727846"><ele>371.66666666666663</ele><time>2026-04-27T12:28:11.949Z</time></trkpt><trkpt lat="39.55711664558821" lon="8.570917376589582"><ele>371.0</ele><time>2026-04-27T12:28:12.948Z</time></trkpt><trkpt lat="39.55711430186443" lon="8.571030709190683"><ele>370.3333333333333</ele><time>2026-04-27T12:28:13.948Z</time></trkpt><trkpt lat="39.557115130209354" lon="8.571132349488495"><ele>369.6666666666667</ele><time>2026-04-27T12:28:14.949Z</time></trkpt><trkpt lat="39.55706557621808" lon="8.571218542046713"><ele>369.0</ele><time>2026-04-27T12:28:15.949Z</time></trkpt><trkpt lat="39.556998499306324" lon="8.571285392159153"><ele>369.5</ele><time>2026-04-27T12:28:16.949Z</time></trkpt><trkpt lat="39.55691361945115" lon="8.571298263538093"><ele>370.0</ele><time>2026-04-27T12:28:17.949Z</time></trkpt><trkpt lat="39.55683857558107" lon="8.571286000060397"><ele>370.5</ele><time>2026-04-27T12:28:18.949Z</time></trkpt><trkpt lat="39.55676718885076" lon="8.571229478253358"><ele>371.0</ele><time>2026-04-27T12:28:19.949Z</time></trkpt><trkpt lat="39.55669625237414" lon="8.571186581262028"><ele>371.5</ele><time>2026-04-27T12:28:20.949Z</time></trkpt><trkpt lat="39.55662154844061" lon="8.57115009823583"><ele>372.0</ele><time>2026-04-27T12:28:21.949Z</time></trkpt><trkpt lat="39.556539475260806" lon="8.571135892544874"><ele>372.0</ele><time>2026-04-27T12:28:22.949Z</time></trkpt><trkpt lat="39.556468686508666" lon="8.571155193351121"><ele>372.0</ele><time>2026-04-27T12:28:23.949Z</time></trkpt><trkpt lat="39.556331233030406" lon="8.5712394372133"><ele>372.0</ele><time>2026-04-27T12:28:25.949Z</time></trkpt><trkpt lat="39.55626007871415" lon="8.57133308632554"><ele>372.0</ele><time>2026-04-27T12:28:26.949Z</time></trkpt><trkpt lat="39.556199971328276" lon="8.571449852537418"><ele>372.0</ele><time>2026-04-27T12:28:27.949Z</time></trkpt><trkpt lat="39.556151142113" lon="8.571572206240901"><ele>372.25</ele><time>2026-04-27T12:28:28.949Z</time></trkpt><trkpt lat="39.55611286263205" lon="8.57168434948537"><ele>372.5</ele><time>2026-04-27T12:28:29.949Z</time></trkpt><trkpt lat="39.556077717022006" lon="8.571800591887536"><ele>372.75</ele><time>2026-04-27T12:28:30.949Z</time></trkpt><trkpt lat="39.55605839021674" lon="8.571958841898958"><ele>373.0</ele><time>2026-04-27T12:28:31.949Z</time></trkpt><trkpt lat="39.55603996328654" lon="8.57213809191563"><ele>371.75</ele><time>2026-04-27T12:28:32.949Z</time></trkpt><trkpt lat="39.55601839856155" lon="8.572335958089619"><ele>370.5</ele><time>2026-04-27T12:28:33.949Z</time></trkpt><trkpt lat="39.555996895022474" lon="8.572533439096802"><ele>369.25</ele><time>2026-04-27T12:28:34.949Z</time></trkpt><trkpt lat="39.555977963666294" lon="8.572707298032883"><ele>368.0</ele><time>2026-04-27T12:28:35.949Z</time></trkpt><trkpt lat="39.55597969853036" lon="8.572879466132598"><ele>366.5</ele><time>2026-04-27T12:28:36.949Z</time></trkpt><trkpt lat="39.55594460501996" lon="8.57305014136013"><ele>365.0</ele><time>2026-04-27T12:28:37.949Z</time></trkpt><trkpt lat="39.55588812228775" lon="8.573211247320188"><ele>363.5</ele><time>2026-04-27T12:28:38.949Z</time></trkpt><trkpt lat="39.55581955230906" lon="8.573366784908892"><ele>362.0</ele><time>2026-04-27T12:28:39.949Z</time></trkpt><trkpt lat="39.555732953434735" lon="8.573503287515047"><ele>362.0</ele><time>2026-04-27T12:28:40.949Z</time></trkpt><trkpt lat="39.555658458637794" lon="8.573643068114562"><ele>362.0</ele><time>2026-04-27T12:28:41.95Z</time></trkpt><trkpt lat="39.55558678806381" lon="8.5737851664134"><ele>362.0</ele><time>2026-04-27T12:28:42.95Z</time></trkpt><trkpt lat="39.55552721540896" lon="8.573934325045581"><ele>362.0</ele><time>2026-04-27T12:28:43.95Z</time></trkpt><trkpt lat="39.55550173289298" lon="8.574088245934952"><ele>360.0</ele><time>2026-04-27T12:28:44.95Z</time></trkpt><trkpt lat="39.55548915735973" lon="8.574242010886751"><ele>358.0</ele><time>2026-04-27T12:28:45.95Z</time></trkpt><trkpt lat="39.55548021796172" lon="8.574402819270139"><ele>356.0</ele><time>2026-04-27T12:28:46.95Z</time></trkpt><trkpt lat="39.555435889224015" lon="8.574553249047879"><ele>354.0</ele><time>2026-04-27T12:28:47.95Z</time></trkpt><trkpt lat="39.55538864943358" lon="8.574662964781552"><ele>354.2</ele><time>2026-04-27T12:28:48.95Z</time></trkpt><trkpt lat="39.55533604798058" lon="8.574741992481734"><ele>354.4</ele><time>2026-04-27T12:28:49.95Z</time></trkpt><trkpt lat="39.55522172568581" lon="8.57482501384452"><ele>354.6</ele><time>2026-04-27T12:28:51.95Z</time></trkpt><trkpt lat="39.555097602877304" lon="8.574862606059726"><ele>354.8</ele><time>2026-04-27T12:28:52.95Z</time></trkpt><trkpt lat="39.55501164297491" lon="8.574814826903848"><ele>355.0</ele><time>2026-04-27T12:28:53.95Z</time></trkpt><trkpt lat="39.55488938681122" lon="8.574740909672817"><ele>355.0</ele><time>2026-04-27T12:28:54.95Z</time></trkpt><trkpt lat="39.55479431704098" lon="8.574699836664523"><ele>355.0</ele><time>2026-04-27T12:28:55.95Z</time></trkpt><trkpt lat="39.55469627547611" lon="8.574666663437815"><ele>355.0</ele><time>2026-04-27T12:28:56.95Z</time></trkpt><trkpt lat="39.55458160634075" lon="8.574658582748954"><ele>355.0</ele><time>2026-04-27T12:28:57.95Z</time></trkpt><trkpt lat="39.554463762037855" lon="8.57475758232868"><ele>357.5</ele><time>2026-04-27T12:28:58.95Z</time></trkpt><trkpt lat="39.55436474275027" lon="8.574838012373492"><ele>360.0</ele><time>2026-04-27T12:28:59.95Z</time></trkpt><trkpt lat="39.554275553171024" lon="8.57493345448208"><ele>362.5</ele><time>2026-04-27T12:29:00.95Z</time></trkpt><trkpt lat="39.55418710171992" lon="8.575028329350786"><ele>365.0</ele><time>2026-04-27T12:29:01.95Z</time></trkpt><trkpt lat="39.554097028536" lon="8.57511478122306"><ele>365.0</ele><time>2026-04-27T12:29:02.95Z</time></trkpt><trkpt lat="39.554010756461764" lon="8.575184144151097"><ele>365.0</ele><time>2026-04-27T12:29:03.95Z</time></trkpt><trkpt lat="39.55392493904013" lon="8.575208660636063"><ele>365.0</ele><time>2026-04-27T12:29:04.95Z</time></trkpt><trkpt lat="39.553856571008026" lon="8.575196878832399"><ele>365.0</ele><time>2026-04-27T12:29:05.95Z</time></trkpt><trkpt lat="39.55376354606025" lon="8.5751509982116"><ele>365.0</ele><time>2026-04-27T12:29:06.95Z</time></trkpt><trkpt lat="39.55365887588941" lon="8.575083739900348"><ele>366.6666666666667</ele><time>2026-04-27T12:29:07.95Z</time></trkpt><trkpt lat="39.553522527022096" lon="8.574994916109885"><ele>368.3333333333333</ele><time>2026-04-27T12:29:08.95Z</time></trkpt><trkpt lat="39.553368159448034" lon="8.574939832183658"><ele>370.0</ele><time>2026-04-27T12:29:09.95Z</time></trkpt><trkpt lat="39.553207195818004" lon="8.574949946333374"><ele>370.0</ele><time>2026-04-27T12:29:10.95Z</time></trkpt><trkpt lat="39.55307264243783" lon="8.574983254879552"><ele>370.0</ele><time>2026-04-27T12:29:11.95Z</time></trkpt><trkpt lat="39.55296339138759" lon="8.575056459806703"><ele>370.0</ele><time>2026-04-27T12:29:12.95Z</time></trkpt><trkpt lat="39.55285795435602" lon="8.575145391713953"><ele>370.0</ele><time>2026-04-27T12:29:13.95Z</time></trkpt><trkpt lat="39.5527565381695" lon="8.575254564864274"><ele>373.16666666666663</ele><time>2026-04-27T12:29:14.95Z</time></trkpt><trkpt lat="39.55271686648228" lon="8.575373642287714"><ele>376.3333333333333</ele><time>2026-04-27T12:29:15.95Z</time></trkpt><trkpt lat="39.55270875003864" lon="8.575474178957462"><ele>379.5</ele><time>2026-04-27T12:29:16.95Z</time></trkpt><trkpt lat="39.55273379839273" lon="8.575552357703927"><ele>382.66666666666663</ele><time>2026-04-27T12:29:17.95Z</time></trkpt><trkpt lat="39.55275023185455" lon="8.575662062769629"><ele>385.8333333333333</ele><time>2026-04-27T12:29:18.95Z</time></trkpt><trkpt lat="39.55279544419953" lon="8.5757662521047"><ele>389.0</ele><time>2026-04-27T12:29:19.95Z</time></trkpt><trkpt lat="39.552834549858254" lon="8.57595684183789"><ele>379.5</ele><time>2026-04-27T12:29:20.95Z</time></trkpt><trkpt lat="39.552876232384754" lon="8.57615999052778"><ele>370.0</ele><time>2026-04-27T12:29:21.95Z</time></trkpt><trkpt lat="39.55292476149153" lon="8.576399020402295"><ele>360.5</ele><time>2026-04-27T12:29:22.95Z</time></trkpt><trkpt lat="39.55297007258218" lon="8.576505499906865"><ele>351.0</ele><time>2026-04-27T12:29:24.95Z</time></trkpt><trkpt lat="39.55300413005301" lon="8.576670659389523"><ele>351.0</ele><time>2026-04-27T12:29:25.95Z</time></trkpt><trkpt lat="39.55303521701218" lon="8.576837360593325"><ele>351.0</ele><time>2026-04-27T12:29:26.95Z</time></trkpt><trkpt lat="39.55306530203321" lon="8.577002148261494"><ele>351.0</ele><time>2026-04-27T12:29:27.95Z</time></trkpt><trkpt lat="39.55309332976473" lon="8.577164143614844"><ele>351.0</ele><time>2026-04-27T12:29:28.95Z</time></trkpt><trkpt lat="39.553102831184745" lon="8.57731737686769"><ele>351.8</ele><time>2026-04-27T12:29:29.95Z</time></trkpt><trkpt lat="39.55310018954809" lon="8.577452802459527"><ele>352.6</ele><time>2026-04-27T12:29:30.95Z</time></trkpt><trkpt lat="39.55307484456876" lon="8.57757601387524"><ele>353.4</ele><time>2026-04-27T12:29:31.95Z</time></trkpt><trkpt lat="39.55299112258784" lon="8.577657153585841"><ele>354.2</ele><time>2026-04-27T12:29:32.95Z</time></trkpt><trkpt lat="39.5529103617895" lon="8.57768602685727"><ele>355.0</ele><time>2026-04-27T12:29:33.95Z</time></trkpt><trkpt lat="39.55282813270126" lon="8.577714220868623"><ele>356.0</ele><time>2026-04-27T12:29:34.95Z</time></trkpt><trkpt lat="39.55272021704773" lon="8.57774718571735"><ele>357.0</ele><time>2026-04-27T12:29:35.95Z</time></trkpt><trkpt lat="39.55259507837891" lon="8.577781938514578"><ele>358.0</ele><time>2026-04-27T12:29:36.95Z</time></trkpt><trkpt lat="39.55245753922593" lon="8.57781979619041"><ele>359.0</ele><time>2026-04-27T12:29:37.95Z</time></trkpt><trkpt lat="39.552318420937375" lon="8.577856046678146"><ele>359.0</ele><time>2026-04-27T12:29:38.95Z</time></trkpt><trkpt lat="39.552180069076755" lon="8.577877123625072"><ele>359.0</ele><time>2026-04-27T12:29:39.95Z</time></trkpt><trkpt lat="39.5520690021688" lon="8.57792980346146"><ele>359.0</ele><time>2026-04-27T12:29:40.95Z</time></trkpt><trkpt lat="39.551962405897456" lon="8.577948699229841"><ele>359.0</ele><time>2026-04-27T12:29:41.95Z</time></trkpt><trkpt lat="39.551886590160954" lon="8.578064751639177"><ele>364.4</ele><time>2026-04-27T12:29:42.95Z</time></trkpt><trkpt lat="39.55182098493305" lon="8.578157548642974"><ele>369.79999999999995</ele><time>2026-04-27T12:29:43.95Z</time></trkpt><trkpt lat="39.55178517258795" lon="8.578263684628538"><ele>375.20000000000005</ele><time>2026-04-27T12:29:44.95Z</time></trkpt><trkpt lat="39.55178732435278" lon="8.578383960120657"><ele>380.6</ele><time>2026-04-27T12:29:45.95Z</time></trkpt><trkpt lat="39.55181668483719" lon="8.578488791107345"><ele>386.0</ele><time>2026-04-27T12:29:46.95Z</time></trkpt><trkpt lat="39.55190909785142" lon="8.578602898254564"><ele>390.5</ele><time>2026-04-27T12:29:47.951Z</time></trkpt><trkpt lat="39.55197821261904" lon="8.578740928281348"><ele>395.0</ele><time>2026-04-27T12:29:48.951Z</time></trkpt><trkpt lat="39.55203519946501" lon="8.578851466632813"><ele>399.5</ele><time>2026-04-27T12:29:49.951Z</time></trkpt><trkpt lat="39.55212008501139" lon="8.578990213697976"><ele>404.0</ele><time>2026-04-27T12:29:50.951Z</time></trkpt><trkpt lat="39.552200664663204" lon="8.579118744771609"><ele>401.0</ele><time>2026-04-27T12:29:51.951Z</time></trkpt><trkpt lat="39.5522946990401" lon="8.57923942203182"><ele>398.0</ele><time>2026-04-27T12:29:52.951Z</time></trkpt><trkpt lat="39.55237957934418" lon="8.579376324472257"><ele>395.0</ele><time>2026-04-27T12:29:53.951Z</time></trkpt><trkpt lat="39.55248846735302" lon="8.579500919168195"><ele>392.0</ele><time>2026-04-27T12:29:54.951Z</time></trkpt><trkpt lat="39.552597294469166" lon="8.57962593479785"><ele>392.0</ele><time>2026-04-27T12:29:55.951Z</time></trkpt><trkpt lat="39.552701802708064" lon="8.579741544218574"><ele>392.0</ele><time>2026-04-27T12:29:56.951Z</time></trkpt><trkpt lat="39.55279197730387" lon="8.57985819965033"><ele>392.0</ele><time>2026-04-27T12:29:57.951Z</time></trkpt><trkpt lat="39.5528730609729" lon="8.579989160581198"><ele>392.0</ele><time>2026-04-27T12:29:58.951Z</time></trkpt><trkpt lat="39.552938764836135" lon="8.580110813237477"><ele>386.0</ele><time>2026-04-27T12:29:59.951Z</time></trkpt><trkpt lat="39.552972172660006" lon="8.580231459373975"><ele>380.0</ele><time>2026-04-27T12:30:00.951Z</time></trkpt><trkpt lat="39.55298065623364" lon="8.580370149811538"><ele>374.0</ele><time>2026-04-27T12:30:01.951Z</time></trkpt><trkpt lat="39.552971578991155" lon="8.580522191213646"><ele>368.0</ele><time>2026-04-27T12:30:02.951Z</time></trkpt><trkpt lat="39.552949960272414" lon="8.580664756782308"><ele>362.0</ele><time>2026-04-27T12:30:03.951Z</time></trkpt><trkpt lat="39.552917361321576" lon="8.580821357943655"><ele>362.0</ele><time>2026-04-27T12:30:04.951Z</time></trkpt><trkpt lat="39.55288427009307" lon="8.580981443532703"><ele>362.0</ele><time>2026-04-27T12:30:05.951Z</time></trkpt><trkpt lat="39.552854109217016" lon="8.581156969769857"><ele>362.0</ele><time>2026-04-27T12:30:06.951Z</time></trkpt><trkpt lat="39.55283091092875" lon="8.581342016767154"><ele>362.0</ele><time>2026-04-27T12:30:07.951Z</time></trkpt><trkpt lat="39.55282537732736" lon="8.581523474765984"><ele>363.25</ele><time>2026-04-27T12:30:08.951Z</time></trkpt><trkpt lat="39.55282529754017" lon="8.581704241800717"><ele>364.5</ele><time>2026-04-27T12:30:09.951Z</time></trkpt><trkpt lat="39.55284920965045" lon="8.581891269751782"><ele>365.75</ele><time>2026-04-27T12:30:10.951Z</time></trkpt><trkpt lat="39.55288999732031" lon="8.582067450691788"><ele>367.0</ele><time>2026-04-27T12:30:11.949Z</time></trkpt><trkpt lat="39.5529303871916" lon="8.582232686549439"><ele>367.0</ele><time>2026-04-27T12:30:12.949Z</time></trkpt><trkpt lat="39.55295574403734" lon="8.582394920197341"><ele>367.0</ele><time>2026-04-27T12:30:13.949Z</time></trkpt><trkpt lat="39.55296741080091" lon="8.582532737420065"><ele>367.0</ele><time>2026-04-27T12:30:14.949Z</time></trkpt><trkpt lat="39.552969037143086" lon="8.582666484413759"><ele>367.0</ele><time>2026-04-27T12:30:15.949Z</time></trkpt><trkpt lat="39.55292132158439" lon="8.582774319909305"><ele>367.0</ele><time>2026-04-27T12:30:16.949Z</time></trkpt><trkpt lat="39.552873687059915" lon="8.582870020097609"><ele>367.6</ele><time>2026-04-27T12:30:17.949Z</time></trkpt><trkpt lat="39.55279728766375" lon="8.582930845785029"><ele>368.20000000000005</ele><time>2026-04-27T12:30:18.95Z</time></trkpt><trkpt lat="39.55269758054387" lon="8.582961176361133"><ele>368.8</ele><time>2026-04-27T12:30:19.95Z</time></trkpt><trkpt lat="39.55258876495336" lon="8.58300303369906"><ele>369.4</ele><time>2026-04-27T12:30:20.949Z</time></trkpt><trkpt lat="39.55248438554038" lon="8.583034128198072"><ele>370.0</ele><time>2026-04-27T12:30:21.95Z</time></trkpt><trkpt lat="39.55237128111538" lon="8.58307457832768"><ele>370.0</ele><time>2026-04-27T12:30:22.95Z</time></trkpt><trkpt lat="39.5522523249335" lon="8.583113297596396"><ele>370.0</ele><time>2026-04-27T12:30:23.95Z</time></trkpt><trkpt lat="39.55214384620326" lon="8.583125255091193"><ele>370.0</ele><time>2026-04-27T12:30:24.949Z</time></trkpt><trkpt lat="39.55203177370319" lon="8.583110719807244"><ele>370.0</ele><time>2026-04-27T12:30:25.949Z</time></trkpt><trkpt lat="39.551917320628455" lon="8.58308020661131"><ele>372.0</ele><time>2026-04-27T12:30:26.949Z</time></trkpt><trkpt lat="39.55180521778707" lon="8.58305250270855"><ele>374.0</ele><time>2026-04-27T12:30:27.949Z</time></trkpt><trkpt lat="39.551679464337084" lon="8.583040628691322"><ele>376.0</ele><time>2026-04-27T12:30:28.949Z</time></trkpt><trkpt lat="39.55155340504657" lon="8.583048646704771"><ele>378.0</ele><time>2026-04-27T12:30:29.949Z</time></trkpt><trkpt lat="39.55142301264953" lon="8.583069347085013"><ele>378.0</ele><time>2026-04-27T12:30:30.949Z</time></trkpt><trkpt lat="39.55129265635121" lon="8.58307393322944"><ele>378.0</ele><time>2026-04-27T12:30:31.949Z</time></trkpt><trkpt lat="39.551159311084504" lon="8.583064934426943"><ele>378.0</ele><time>2026-04-27T12:30:32.949Z</time></trkpt><trkpt lat="39.5510251131587" lon="8.583044865349752"><ele>378.0</ele><time>2026-04-27T12:30:33.949Z</time></trkpt><trkpt lat="39.55089960434149" lon="8.583031195891959"><ele>380.2</ele><time>2026-04-27T12:30:34.949Z</time></trkpt><trkpt lat="39.55079081741372" lon="8.583002161789434"><ele>382.4</ele><time>2026-04-27T12:30:35.949Z</time></trkpt><trkpt lat="39.55070072999825" lon="8.583022582845697"><ele>384.59999999999997</ele><time>2026-04-27T12:30:36.949Z</time></trkpt><trkpt lat="39.55062826338533" lon="8.583067716914643"><ele>386.79999999999995</ele><time>2026-04-27T12:30:37.949Z</time></trkpt><trkpt lat="39.550557707359616" lon="8.583123142602249"><ele>389.0</ele><time>2026-04-27T12:30:38.949Z</time></trkpt><trkpt lat="39.55051470024987" lon="8.58323572666209"><ele>389.0</ele><time>2026-04-27T12:30:39.949Z</time></trkpt><trkpt lat="39.55049981464178" lon="8.58335824836217"><ele>389.0</ele><time>2026-04-27T12:30:40.949Z</time></trkpt><trkpt lat="39.55050794293677" lon="8.58347533110234"><ele>389.0</ele><time>2026-04-27T12:30:41.949Z</time></trkpt><trkpt lat="39.5505315673444" lon="8.583604796069107"><ele>389.0</ele><time>2026-04-27T12:30:42.949Z</time></trkpt><trkpt lat="39.55056164534068" lon="8.583729103308588"><ele>389.0</ele><time>2026-04-27T12:30:43.949Z</time></trkpt><trkpt lat="39.55061366227009" lon="8.583857084333449"><ele>391.0</ele><time>2026-04-27T12:30:44.949Z</time></trkpt><trkpt lat="39.55070968416122" lon="8.583944149511206"><ele>393.0</ele><time>2026-04-27T12:30:45.949Z</time></trkpt><trkpt lat="39.55079375493113" lon="8.58404028218642"><ele>395.0</ele><time>2026-04-27T12:30:46.949Z</time></trkpt><trkpt lat="39.550888809082586" lon="8.584126438574234"><ele>397.0</ele><time>2026-04-27T12:30:47.949Z</time></trkpt><trkpt lat="39.55097151278831" lon="8.584230492721565"><ele>397.0</ele><time>2026-04-27T12:30:48.949Z</time></trkpt><trkpt lat="39.55104576115967" lon="8.58434265652972"><ele>397.0</ele><time>2026-04-27T12:30:49.949Z</time></trkpt><trkpt lat="39.55112618860699" lon="8.584484827671613"><ele>397.0</ele><time>2026-04-27T12:30:50.949Z</time></trkpt><trkpt lat="39.5511861659332" lon="8.58462322491419"><ele>397.0</ele><time>2026-04-27T12:30:51.949Z</time></trkpt><trkpt lat="39.55123320213694" lon="8.584774000369922"><ele>391.0</ele><time>2026-04-27T12:30:52.949Z</time></trkpt><trkpt lat="39.55125961359472" lon="8.584935326145068"><ele>385.0</ele><time>2026-04-27T12:30:53.949Z</time></trkpt><trkpt lat="39.55127767319618" lon="8.585114596624482"><ele>379.0</ele><time>2026-04-27T12:30:54.949Z</time></trkpt><trkpt lat="39.551287596322865" lon="8.585297449878764"><ele>373.0</ele><time>2026-04-27T12:30:55.949Z</time></trkpt><trkpt lat="39.55128586443704" lon="8.585494099693449"><ele>372.75</ele><time>2026-04-27T12:30:56.949Z</time></trkpt><trkpt lat="39.55127525264534" lon="8.585691613637636"><ele>372.5</ele><time>2026-04-27T12:30:57.949Z</time></trkpt><trkpt lat="39.55125369949476" lon="8.585874090376812"><ele>372.25</ele><time>2026-04-27T12:30:58.949Z</time></trkpt><trkpt lat="39.55122457626538" lon="8.586055872485778"><ele>372.0</ele><time>2026-04-27T12:30:59.949Z</time></trkpt><trkpt lat="39.55118019937764" lon="8.58621897136698"><ele>380.0</ele><time>2026-04-27T12:31:00.949Z</time></trkpt><trkpt lat="39.55114143312988" lon="8.586378330291835"><ele>388.0</ele><time>2026-04-27T12:31:01.949Z</time></trkpt><trkpt lat="39.55110662818967" lon="8.586525429094742"><ele>396.0</ele><time>2026-04-27T12:31:02.949Z</time></trkpt><trkpt lat="39.551024223903944" lon="8.58663889138042"><ele>404.0</ele><time>2026-04-27T12:31:03.949Z</time></trkpt><trkpt lat="39.55093145421849" lon="8.586733480984115"><ele>404.0</ele><time>2026-04-27T12:31:04.949Z</time></trkpt><trkpt lat="39.55085635182057" lon="8.586827806063107"><ele>404.0</ele><time>2026-04-27T12:31:05.949Z</time></trkpt><trkpt lat="39.55079878768476" lon="8.586926536650505"><ele>404.0</ele><time>2026-04-27T12:31:06.949Z</time></trkpt><trkpt lat="39.55076547309768" lon="8.58705318151849"><ele>404.0</ele><time>2026-04-27T12:31:07.949Z</time></trkpt><trkpt lat="39.55079865730846" lon="8.58716948097477"><ele>404.0</ele><time>2026-04-27T12:31:08.949Z</time></trkpt><trkpt lat="39.55082849559024" lon="8.587259321523494"><ele>405.2</ele><time>2026-04-27T12:31:09.949Z</time></trkpt><trkpt lat="39.55088641374373" lon="8.587344330916142"><ele>406.4</ele><time>2026-04-27T12:31:10.949Z</time></trkpt><trkpt lat="39.55096167258593" lon="8.587426394453207"><ele>407.6</ele><time>2026-04-27T12:31:11.949Z</time></trkpt><trkpt lat="39.551052344747134" lon="8.58751036349433"><ele>408.8</ele><time>2026-04-27T12:31:12.949Z</time></trkpt><trkpt lat="39.551148435648464" lon="8.587592921020788"><ele>410.0</ele><time>2026-04-27T12:31:13.95Z</time></trkpt><trkpt lat="39.55124069882322" lon="8.587686728849418"><ele>404.0</ele><time>2026-04-27T12:31:14.95Z</time></trkpt><trkpt lat="39.551341167269804" lon="8.587793169354603"><ele>398.0</ele><time>2026-04-27T12:31:15.95Z</time></trkpt><trkpt lat="39.551424592781636" lon="8.587888137783818"><ele>392.0</ele><time>2026-04-27T12:31:16.95Z</time></trkpt><trkpt lat="39.55148945717753" lon="8.587986070517275"><ele>386.0</ele><time>2026-04-27T12:31:17.95Z</time></trkpt><trkpt lat="39.55153798058262" lon="8.588111512259132"><ele>380.0</ele><time>2026-04-27T12:31:18.95Z</time></trkpt><trkpt lat="39.551526892860714" lon="8.58823883772531"><ele>380.0</ele><time>2026-04-27T12:31:19.95Z</time></trkpt><trkpt lat="39.551525546570446" lon="8.588385430257317"><ele>380.0</ele><time>2026-04-27T12:31:20.95Z</time></trkpt><trkpt lat="39.551502874185346" lon="8.58850869604076"><ele>380.0</ele><time>2026-04-27T12:31:21.95Z</time></trkpt><trkpt lat="39.55147815560237" lon="8.588640808535953"><ele>380.0</ele><time>2026-04-27T12:31:22.95Z</time></trkpt><trkpt lat="39.5514194692177" lon="8.588754133541908"><ele>380.0</ele><time>2026-04-27T12:31:23.95Z</time></trkpt><trkpt lat="39.55134910027546" lon="8.588837583476534"><ele>381.5</ele><time>2026-04-27T12:31:24.95Z</time></trkpt><trkpt lat="39.551243320134006" lon="8.58887431585844"><ele>383.0</ele><time>2026-04-27T12:31:25.95Z</time></trkpt><trkpt lat="39.55114302414494" lon="8.588924046003171"><ele>384.5</ele><time>2026-04-27T12:31:26.95Z</time></trkpt><trkpt lat="39.55103467047195" lon="8.588979168276545"><ele>386.0</ele><time>2026-04-27T12:31:27.95Z</time></trkpt><trkpt lat="39.55091184996168" lon="8.58896361254996"><ele>386.0</ele><time>2026-04-27T12:31:28.95Z</time></trkpt><trkpt lat="39.55079214919317" lon="8.588969340895039"><ele>386.0</ele><time>2026-04-27T12:31:29.95Z</time></trkpt><trkpt lat="39.55067169111233" lon="8.588977511231006"><ele>386.0</ele><time>2026-04-27T12:31:30.95Z</time></trkpt><trkpt lat="39.550551249588" lon="8.588988811495835"><ele>386.0</ele><time>2026-04-27T12:31:31.95Z</time></trkpt><trkpt lat="39.55043840117184" lon="8.589003231757346"><ele>391.0</ele><time>2026-04-27T12:31:32.95Z</time></trkpt><trkpt lat="39.5503371396448" lon="8.589033759664858"><ele>396.0</ele><time>2026-04-27T12:31:33.95Z</time></trkpt><trkpt lat="39.5502404058798" lon="8.589106040601596"><ele>401.0</ele><time>2026-04-27T12:31:34.95Z</time></trkpt><trkpt lat="39.550156098875924" lon="8.589226184710192"><ele>406.0</ele><time>2026-04-27T12:31:35.95Z</time></trkpt><trkpt lat="39.5501259147308" lon="8.589355273118649"><ele>411.0</ele><time>2026-04-27T12:31:36.95Z</time></trkpt><trkpt lat="39.55008813066006" lon="8.589465325038711"><ele>407.0</ele><time>2026-04-27T12:31:37.95Z</time></trkpt><trkpt lat="39.55004150302548" lon="8.589593445735447"><ele>403.0</ele><time>2026-04-27T12:31:38.95Z</time></trkpt><trkpt lat="39.54997765625129" lon="8.589693123442036"><ele>399.0</ele><time>2026-04-27T12:31:39.95Z</time></trkpt><trkpt lat="39.54989063243804" lon="8.589757378142691"><ele>395.0</ele><time>2026-04-27T12:31:40.95Z</time></trkpt><trkpt lat="39.54979230320408" lon="8.58980449775697"><ele>391.0</ele><time>2026-04-27T12:31:41.95Z</time></trkpt><trkpt lat="39.549683948878446" lon="8.589872483571224"><ele>391.0</ele><time>2026-04-27T12:31:42.95Z</time></trkpt><trkpt lat="39.549610300852855" lon="8.589970120391152"><ele>391.0</ele><time>2026-04-27T12:31:43.95Z</time></trkpt><trkpt lat="39.54956586626381" lon="8.590082480231079"><ele>391.0</ele><time>2026-04-27T12:31:44.95Z</time></trkpt><trkpt lat="39.54956823664332" lon="8.590239557727934"><ele>391.0</ele><time>2026-04-27T12:31:45.95Z</time></trkpt><trkpt lat="39.54956947871797" lon="8.590374075058593"><ele>391.0</ele><time>2026-04-27T12:31:46.95Z</time></trkpt><trkpt lat="39.5495581767578" lon="8.590514446770513"><ele>391.5</ele><time>2026-04-27T12:31:47.95Z</time></trkpt><trkpt lat="39.54957530496473" lon="8.590665588002333"><ele>392.0</ele><time>2026-04-27T12:31:48.95Z</time></trkpt><trkpt lat="39.54963360336556" lon="8.590801132442644"><ele>392.5</ele><time>2026-04-27T12:31:49.95Z</time></trkpt><trkpt lat="39.549735341999906" lon="8.590893822011653"><ele>393.0</ele><time>2026-04-27T12:31:50.95Z</time></trkpt><trkpt lat="39.54982065429441" lon="8.59099096235164"><ele>393.0</ele><time>2026-04-27T12:31:51.95Z</time></trkpt><trkpt lat="39.549920606750725" lon="8.591091798896427"><ele>393.0</ele><time>2026-04-27T12:31:52.95Z</time></trkpt><trkpt lat="39.55002483898857" lon="8.591199471064085"><ele>393.0</ele><time>2026-04-27T12:31:53.95Z</time></trkpt><trkpt lat="39.550119764637024" lon="8.591293288626446"><ele>393.0</ele><time>2026-04-27T12:31:54.95Z</time></trkpt><trkpt lat="39.55021422465022" lon="8.591401918429861"><ele>390.0</ele><time>2026-04-27T12:31:55.95Z</time></trkpt><trkpt lat="39.550312637850816" lon="8.591529769200639"><ele>387.0</ele><time>2026-04-27T12:31:56.95Z</time></trkpt><trkpt lat="39.55038664200172" lon="8.591685667660514"><ele>384.0</ele><time>2026-04-27T12:31:57.95Z</time></trkpt><trkpt lat="39.550486425035004" lon="8.591824913843558"><ele>381.0</ele><time>2026-04-27T12:31:58.95Z</time></trkpt><trkpt lat="39.5505472279671" lon="8.591974062331913"><ele>384.25</ele><time>2026-04-27T12:31:59.95Z</time></trkpt><trkpt lat="39.55060676217736" lon="8.592113178299511"><ele>387.5</ele><time>2026-04-27T12:32:00.95Z</time></trkpt><trkpt lat="39.5506629153447" lon="8.592264350156608"><ele>390.75</ele><time>2026-04-27T12:32:01.95Z</time></trkpt><trkpt lat="39.55068942339343" lon="8.59242661069164"><ele>394.0</ele><time>2026-04-27T12:32:02.95Z</time></trkpt><trkpt lat="39.55068744665865" lon="8.592603933645892"><ele>394.0</ele><time>2026-04-27T12:32:03.95Z</time></trkpt><trkpt lat="39.550690440049735" lon="8.592782513474871"><ele>394.0</ele><time>2026-04-27T12:32:04.95Z</time></trkpt><trkpt lat="39.55069263644022" lon="8.592967994657918"><ele>394.0</ele><time>2026-04-27T12:32:05.95Z</time></trkpt><trkpt lat="39.55069352644533" lon="8.593146250552358"><ele>394.0</ele><time>2026-04-27T12:32:06.95Z</time></trkpt><trkpt lat="39.55070905742421" lon="8.593311982136527"><ele>393.5</ele><time>2026-04-27T12:32:07.95Z</time></trkpt><trkpt lat="39.55068481141808" lon="8.593477431123866"><ele>393.0</ele><time>2026-04-27T12:32:08.95Z</time></trkpt><trkpt lat="39.55063771875299" lon="8.593622953029682"><ele>392.5</ele><time>2026-04-27T12:32:09.95Z</time></trkpt><trkpt lat="39.55057296452594" lon="8.593762174974419"><ele>392.0</ele><time>2026-04-27T12:32:10.95Z</time></trkpt><trkpt lat="39.55048303969074" lon="8.593917549534059"><ele>397.66666666666663</ele><time>2026-04-27T12:32:11.95Z</time></trkpt><trkpt lat="39.55032078880741" lon="8.594051369102514"><ele>403.33333333333337</ele><time>2026-04-27T12:32:12.95Z</time></trkpt><trkpt lat="39.55021597314958" lon="8.594142560278112"><ele>409.0</ele><time>2026-04-27T12:32:14.95Z</time></trkpt><trkpt lat="39.55010432970503" lon="8.59423969171949"><ele>409.0</ele><time>2026-04-27T12:32:15.95Z</time></trkpt><trkpt lat="39.54999055150088" lon="8.594338680429084"><ele>409.0</ele><time>2026-04-27T12:32:16.95Z</time></trkpt><trkpt lat="39.54987293877597" lon="8.594441005229884"><ele>409.0</ele><time>2026-04-27T12:32:17.95Z</time></trkpt><trkpt lat="39.54975718018341" lon="8.594542507993836"><ele>409.0</ele><time>2026-04-27T12:32:18.95Z</time></trkpt><trkpt lat="39.54965258468893" lon="8.594667790342434"><ele>410.0</ele><time>2026-04-27T12:32:19.95Z</time></trkpt><trkpt lat="39.549544110288195" lon="8.59477585820909"><ele>411.0</ele><time>2026-04-27T12:32:20.95Z</time></trkpt><trkpt lat="39.54944651315371" lon="8.59490591176818"><ele>412.0</ele><time>2026-04-27T12:32:21.949Z</time></trkpt><trkpt lat="39.549343022295965" lon="8.595030347015742"><ele>413.0</ele><time>2026-04-27T12:32:22.949Z</time></trkpt><trkpt lat="39.54922659362921" lon="8.595134561041467"><ele>413.0</ele><time>2026-04-27T12:32:23.95Z</time></trkpt><trkpt lat="39.54910127115197" lon="8.595228284348305"><ele>413.0</ele><time>2026-04-27T12:32:24.95Z</time></trkpt><trkpt lat="39.54897283784568" lon="8.595321598103867"><ele>413.0</ele><time>2026-04-27T12:32:25.95Z</time></trkpt><trkpt lat="39.548845613108426" lon="8.595419004710887"><ele>413.0</ele><time>2026-04-27T12:32:26.95Z</time></trkpt><trkpt lat="39.54871853394584" lon="8.595521117714194"><ele>414.75</ele><time>2026-04-27T12:32:27.949Z</time></trkpt><trkpt lat="39.548592307881556" lon="8.595621643414455"><ele>416.5</ele><time>2026-04-27T12:32:28.949Z</time></trkpt><trkpt lat="39.54847790034816" lon="8.595725062474065"><ele>418.25</ele><time>2026-04-27T12:32:29.949Z</time></trkpt><trkpt lat="39.54837669665469" lon="8.595854918525442"><ele>420.0</ele><time>2026-04-27T12:32:30.95Z</time></trkpt><trkpt lat="39.54829984679053" lon="8.59600291776547"><ele>420.0</ele><time>2026-04-27T12:32:31.95Z</time></trkpt><trkpt lat="39.54823093596173" lon="8.596160409865016"><ele>420.0</ele><time>2026-04-27T12:32:32.95Z</time></trkpt><trkpt lat="39.548158732091984" lon="8.596310682758105"><ele>420.0</ele><time>2026-04-27T12:32:33.95Z</time></trkpt><trkpt lat="39.54806982742223" lon="8.596441762372633"><ele>420.0</ele><time>2026-04-27T12:32:34.95Z</time></trkpt><trkpt lat="39.547954736817765" lon="8.596534320089644"><ele>419.2</ele><time>2026-04-27T12:32:35.95Z</time></trkpt><trkpt lat="39.5478454538603" lon="8.59661425109455"><ele>418.4</ele><time>2026-04-27T12:32:36.95Z</time></trkpt><trkpt lat="39.547758051678485" lon="8.596637510644944"><ele>417.6</ele><time>2026-04-27T12:32:37.95Z</time></trkpt><trkpt lat="39.547662619617924" lon="8.596628978641906"><ele>416.8</ele><time>2026-04-27T12:32:38.95Z</time></trkpt><trkpt lat="39.547561297532404" lon="8.59658383991947"><ele>416.0</ele><time>2026-04-27T12:32:39.95Z</time></trkpt><trkpt lat="39.547466809185806" lon="8.596567022380134"><ele>416.0</ele><time>2026-04-27T12:32:40.95Z</time></trkpt><trkpt lat="39.547366288783756" lon="8.596526922126678"><ele>416.0</ele><time>2026-04-27T12:32:41.95Z</time></trkpt><trkpt lat="39.547250747101366" lon="8.596490185683988"><ele>416.0</ele><time>2026-04-27T12:32:42.95Z</time></trkpt><trkpt lat="39.54714512270594" lon="8.596463966125082"><ele>416.0</ele><time>2026-04-27T12:32:43.95Z</time></trkpt><trkpt lat="39.54705046831154" lon="8.596493606787666"><ele>416.0</ele><time>2026-04-27T12:32:44.95Z</time></trkpt><trkpt lat="39.54697666333641" lon="8.596570450397703"><ele>419.8</ele><time>2026-04-27T12:32:45.95Z</time></trkpt><trkpt lat="39.546922919630425" lon="8.596688776291447"><ele>423.6</ele><time>2026-04-27T12:32:46.95Z</time></trkpt><trkpt lat="39.54686822029467" lon="8.596788096988968"><ele>427.4</ele><time>2026-04-27T12:32:47.95Z</time></trkpt><trkpt lat="39.54679815528242" lon="8.59689223071732"><ele>431.2</ele><time>2026-04-27T12:32:48.95Z</time></trkpt><trkpt lat="39.54669788498037" lon="8.596948275137743"><ele>435.0</ele><time>2026-04-27T12:32:49.95Z</time></trkpt><trkpt lat="39.54659266761521" lon="8.596994575887182"><ele>436.0</ele><time>2026-04-27T12:32:50.95Z</time></trkpt><trkpt lat="39.5464744038769" lon="8.597014074634291"><ele>437.0</ele><time>2026-04-27T12:32:51.95Z</time></trkpt><trkpt lat="39.54634739981912" lon="8.597039599545859"><ele>438.0</ele><time>2026-04-27T12:32:52.95Z</time></trkpt><trkpt lat="39.54621792008219" lon="8.597067115015765"><ele>439.0</ele><time>2026-04-27T12:32:53.95Z</time></trkpt><trkpt lat="39.54610550680744" lon="8.597107469381521"><ele>439.0</ele><time>2026-04-27T12:32:54.95Z</time></trkpt><trkpt lat="39.54601943472002" lon="8.597140673069145"><ele>439.0</ele><time>2026-04-27T12:32:55.95Z</time></trkpt><trkpt lat="39.54592769973532" lon="8.597204271193348"><ele>439.0</ele><time>2026-04-27T12:32:56.95Z</time></trkpt><trkpt lat="39.54586859148727" lon="8.59732719506347"><ele>439.0</ele><time>2026-04-27T12:32:57.95Z</time></trkpt><trkpt lat="39.54586184413765" lon="8.59745533655546"><ele>439.0</ele><time>2026-04-27T12:32:58.95Z</time></trkpt><trkpt lat="39.54586222196953" lon="8.59759017928024"><ele>439.0</ele><time>2026-04-27T12:32:59.95Z</time></trkpt><trkpt lat="39.54586430542768" lon="8.597733013752094"><ele>439.0</ele><time>2026-04-27T12:33:00.95Z</time></trkpt><trkpt lat="39.54585058178288" lon="8.59788045663462"><ele>439.0</ele><time>2026-04-27T12:33:01.95Z</time></trkpt><trkpt lat="39.54585073307352" lon="8.598035517389265"><ele>439.0</ele><time>2026-04-27T12:33:02.95Z</time></trkpt><trkpt lat="39.54585695378756" lon="8.5981913775899"><ele>437.2</ele><time>2026-04-27T12:33:03.95Z</time></trkpt><trkpt lat="39.5458304515317" lon="8.598325588142613"><ele>435.4</ele><time>2026-04-27T12:33:04.95Z</time></trkpt><trkpt lat="39.54575921690287" lon="8.598419655442381"><ele>433.6</ele><time>2026-04-27T12:33:05.95Z</time></trkpt><trkpt lat="39.545681054496086" lon="8.598493386033976"><ele>431.8</ele><time>2026-04-27T12:33:06.95Z</time></trkpt><trkpt lat="39.54558908531052" lon="8.598578389500277"><ele>430.0</ele><time>2026-04-27T12:33:07.95Z</time></trkpt><trkpt lat="39.54550467887016" lon="8.598679986310493"><ele>430.4</ele><time>2026-04-27T12:33:08.95Z</time></trkpt><trkpt lat="39.54541100656248" lon="8.598725416288863"><ele>430.8</ele><time>2026-04-27T12:33:09.95Z</time></trkpt><trkpt lat="39.545310403137826" lon="8.598716776552244"><ele>431.20000000000005</ele><time>2026-04-27T12:33:10.95Z</time></trkpt><trkpt lat="39.54522407028927" lon="8.598676668778545"><ele>431.6</ele><time>2026-04-27T12:33:11.95Z</time></trkpt><trkpt lat="39.54511848204641" lon="8.598616760657476"><ele>432.0</ele><time>2026-04-27T12:33:12.95Z</time></trkpt><trkpt lat="39.54501301048948" lon="8.59856193002912"><ele>432.0</ele><time>2026-04-27T12:33:13.95Z</time></trkpt><trkpt lat="39.54491730208669" lon="8.598536635392787"><ele>432.00000000000006</ele><time>2026-04-27T12:33:14.95Z</time></trkpt><trkpt lat="39.54480390379575" lon="8.598597361121307"><ele>432.00000000000006</ele><time>2026-04-27T12:33:15.95Z</time></trkpt><trkpt lat="39.54471630208761" lon="8.59865692083442"><ele>432.0</ele><time>2026-04-27T12:33:16.95Z</time></trkpt><trkpt lat="39.54463753084181" lon="8.5987480387364"><ele>432.0</ele><time>2026-04-27T12:33:17.95Z</time></trkpt><trkpt lat="39.54456712125132" lon="8.598852456148146"><ele>442.25</ele><time>2026-04-27T12:33:18.95Z</time></trkpt><trkpt lat="39.544519296214034" lon="8.598988803690714"><ele>452.5</ele><time>2026-04-27T12:33:19.95Z</time></trkpt><trkpt lat="39.5444968952654" lon="8.599145479576253"><ele>462.75</ele><time>2026-04-27T12:33:20.95Z</time></trkpt><trkpt lat="39.544472515723406" lon="8.599296398621515"><ele>473.0</ele><time>2026-04-27T12:33:21.95Z</time></trkpt><trkpt lat="39.544461417903015" lon="8.599468998348316"><ele>471.75</ele><time>2026-04-27T12:33:22.95Z</time></trkpt><trkpt lat="39.54442286431085" lon="8.599620586193497"><ele>470.5</ele><time>2026-04-27T12:33:23.95Z</time></trkpt><trkpt lat="39.54440457528147" lon="8.599782666768101"><ele>469.25</ele><time>2026-04-27T12:33:24.95Z</time></trkpt><trkpt lat="39.544401168247994" lon="8.599950573414219"><ele>468.0</ele><time>2026-04-27T12:33:25.95Z</time></trkpt><trkpt lat="39.54440116825084" lon="8.600114086859827"><ele>468.0</ele><time>2026-04-27T12:33:26.95Z</time></trkpt><trkpt lat="39.54440287012911" lon="8.600291593271997"><ele>468.0</ele><time>2026-04-27T12:33:27.95Z</time></trkpt><trkpt lat="39.544404399300554" lon="8.600443790274467"><ele>468.0</ele><time>2026-04-27T12:33:28.95Z</time></trkpt><trkpt lat="39.544415897877684" lon="8.600597395934262"><ele>468.0</ele><time>2026-04-27T12:33:29.95Z</time></trkpt><trkpt lat="39.54442265538763" lon="8.600747669839926"><ele>466.3333333333333</ele><time>2026-04-27T12:33:30.95Z</time></trkpt><trkpt lat="39.544420099512095" lon="8.600878101148664"><ele>464.66666666666663</ele><time>2026-04-27T12:33:31.95Z</time></trkpt><trkpt lat="39.544409359672876" lon="8.600989677628288"><ele>463.0</ele><time>2026-04-27T12:33:32.95Z</time></trkpt><trkpt lat="39.54437064357548" lon="8.601087283701016"><ele>461.3333333333333</ele><time>2026-04-27T12:33:33.95Z</time></trkpt><trkpt lat="39.5442951446418" lon="8.601138589571836"><ele>459.66666666666663</ele><time>2026-04-27T12:33:34.95Z</time></trkpt><trkpt lat="39.544216931014546" lon="8.601167546191359"><ele>458.0</ele><time>2026-04-27T12:33:35.95Z</time></trkpt><trkpt lat="39.54413082590025" lon="8.601166243885228"><ele>458.0</ele><time>2026-04-27T12:33:36.951Z</time></trkpt><trkpt lat="39.544029553467716" lon="8.601160847419976"><ele>457.99999999999994</ele><time>2026-04-27T12:33:37.951Z</time></trkpt><trkpt lat="39.54393572606217" lon="8.601175443698667"><ele>457.99999999999994</ele><time>2026-04-27T12:33:38.951Z</time></trkpt><trkpt lat="39.54384365820866" lon="8.601176550547319"><ele>458.0</ele><time>2026-04-27T12:33:39.951Z</time></trkpt><trkpt lat="39.54373818772745" lon="8.601204241219689"><ele>458.0</ele><time>2026-04-27T12:33:40.951Z</time></trkpt><trkpt lat="39.54364923834835" lon="8.601323576869598"><ele>459.0</ele><time>2026-04-27T12:33:41.951Z</time></trkpt><trkpt lat="39.5435920138438" lon="8.601428831023588"><ele>459.99999999999994</ele><time>2026-04-27T12:33:42.951Z</time></trkpt><trkpt lat="39.543551025311984" lon="8.601554935934816"><ele>460.99999999999994</ele><time>2026-04-27T12:33:43.951Z</time></trkpt><trkpt lat="39.54349640424354" lon="8.601695560085696"><ele>462.0</ele><time>2026-04-27T12:33:44.951Z</time></trkpt><trkpt lat="39.54345211506158" lon="8.601829295498835"><ele>463.0</ele><time>2026-04-27T12:33:45.951Z</time></trkpt><trkpt lat="39.54337249103366" lon="8.601928656502562"><ele>463.0</ele><time>2026-04-27T12:33:46.951Z</time></trkpt><trkpt lat="39.5432696263802" lon="8.601975990961476"><ele>463.0</ele><time>2026-04-27T12:33:47.951Z</time></trkpt><trkpt lat="39.543158909651304" lon="8.602018856590702"><ele>463.0</ele><time>2026-04-27T12:33:48.951Z</time></trkpt><trkpt lat="39.543041319873254" lon="8.602039814067023"><ele>463.0</ele><time>2026-04-27T12:33:49.951Z</time></trkpt><trkpt lat="39.54291403884904" lon="8.602057264728387"><ele>463.75</ele><time>2026-04-27T12:33:50.951Z</time></trkpt><trkpt lat="39.54279352858017" lon="8.60208685302471"><ele>464.5</ele><time>2026-04-27T12:33:51.951Z</time></trkpt><trkpt lat="39.54265466942846" lon="8.602093296318149"><ele>465.25</ele><time>2026-04-27T12:33:52.951Z</time></trkpt><trkpt lat="39.54251405522149" lon="8.60209382725752"><ele>466.0</ele><time>2026-04-27T12:33:53.951Z</time></trkpt><trkpt lat="39.54236872371532" lon="8.60208005646094"><ele>466.0</ele><time>2026-04-27T12:33:54.951Z</time></trkpt><trkpt lat="39.54222319701215" lon="8.602049054631449"><ele>466.0</ele><time>2026-04-27T12:33:55.951Z</time></trkpt><trkpt lat="39.54208350822887" lon="8.602016298335913"><ele>466.0</ele><time>2026-04-27T12:33:56.951Z</time></trkpt><trkpt lat="39.54194897884285" lon="8.601983515944159"><ele>466.0</ele><time>2026-04-27T12:33:57.951Z</time></trkpt><trkpt lat="39.5418077777484" lon="8.60194075815938"><ele>461.25</ele><time>2026-04-27T12:33:58.951Z</time></trkpt><trkpt lat="39.54167202564139" lon="8.601889793762565"><ele>456.5</ele><time>2026-04-27T12:33:59.951Z</time></trkpt><trkpt lat="39.54153066525414" lon="8.60183258750492"><ele>451.75</ele><time>2026-04-27T12:34:00.951Z</time></trkpt><trkpt lat="39.5413942500034" lon="8.601783381725523"><ele>447.0</ele><time>2026-04-27T12:34:01.951Z</time></trkpt><trkpt lat="39.54125977807062" lon="8.60173533173408"><ele>445.5</ele><time>2026-04-27T12:34:02.951Z</time></trkpt><trkpt lat="39.5411239870485" lon="8.601700304601364"><ele>444.0</ele><time>2026-04-27T12:34:03.951Z</time></trkpt><trkpt lat="39.540994389722705" lon="8.601671084398669"><ele>442.5</ele><time>2026-04-27T12:34:04.951Z</time></trkpt><trkpt lat="39.54085423832305" lon="8.601629578606413"><ele>441.0</ele><time>2026-04-27T12:34:05.951Z</time></trkpt><trkpt lat="39.54070705987545" lon="8.601641952459877"><ele>441.0</ele><time>2026-04-27T12:34:06.951Z</time></trkpt><trkpt lat="39.54055927083424" lon="8.601657872077006"><ele>441.0</ele><time>2026-04-27T12:34:07.951Z</time></trkpt><trkpt lat="39.540408463558485" lon="8.601680871318662"><ele>441.0</ele><time>2026-04-27T12:34:08.951Z</time></trkpt><trkpt lat="39.540255587611725" lon="8.601722181602778"><ele>439.0</ele><time>2026-04-27T12:34:09.951Z</time></trkpt><trkpt lat="39.54011014319071" lon="8.601760641954357"><ele>437.0</ele><time>2026-04-27T12:34:10.951Z</time></trkpt><trkpt lat="39.539983246293524" lon="8.601799097761385"><ele>435.0</ele><time>2026-04-27T12:34:11.951Z</time></trkpt><trkpt lat="39.53984090619112" lon="8.601799059530315"><ele>433.0</ele><time>2026-04-27T12:34:12.951Z</time></trkpt><trkpt lat="39.53968963894051" lon="8.601827462109146"><ele>430.25</ele><time>2026-04-27T12:34:13.951Z</time></trkpt><trkpt lat="39.53954573357465" lon="8.60189656063089"><ele>427.5</ele><time>2026-04-27T12:34:14.951Z</time></trkpt><trkpt lat="39.53941882796152" lon="8.601996786214983"><ele>424.75</ele><time>2026-04-27T12:34:15.951Z</time></trkpt><trkpt lat="39.53928700169144" lon="8.60206968606483"><ele>422.0</ele><time>2026-04-27T12:34:16.951Z</time></trkpt><trkpt lat="39.53914245123172" lon="8.60208964943085"><ele>427.5</ele><time>2026-04-27T12:34:17.951Z</time></trkpt><trkpt lat="39.53899727864743" lon="8.602114647959313"><ele>433.0</ele><time>2026-04-27T12:34:18.951Z</time></trkpt><trkpt lat="39.5388456991598" lon="8.60214205608919"><ele>438.5</ele><time>2026-04-27T12:34:19.951Z</time></trkpt><trkpt lat="39.53869774619785" lon="8.60215842327016"><ele>444.0</ele><time>2026-04-27T12:34:20.951Z</time></trkpt><trkpt lat="39.53854879605556" lon="8.60216231551868"><ele>444.0</ele><time>2026-04-27T12:34:21.951Z</time></trkpt><trkpt lat="39.538406468241604" lon="8.60218031588144"><ele>444.0</ele><time>2026-04-27T12:34:22.951Z</time></trkpt><trkpt lat="39.538267277186854" lon="8.602234697628168"><ele>444.0</ele><time>2026-04-27T12:34:23.951Z</time></trkpt><trkpt lat="39.53812749475515" lon="8.602297438425916"><ele>444.0</ele><time>2026-04-27T12:34:24.95Z</time></trkpt><trkpt lat="39.53798945297956" lon="8.602363684685232"><ele>439.25</ele><time>2026-04-27T12:34:25.95Z</time></trkpt><trkpt lat="39.53785277123722" lon="8.602436759930876"><ele>434.5</ele><time>2026-04-27T12:34:26.95Z</time></trkpt><trkpt lat="39.53771515259514" lon="8.602514124377665"><ele>429.75</ele><time>2026-04-27T12:34:27.95Z</time></trkpt><trkpt lat="39.537581861259255" lon="8.602589671097622"><ele>425.0</ele><time>2026-04-27T12:34:28.95Z</time></trkpt><trkpt lat="39.53743861668014" lon="8.602642473025224"><ele>425.0</ele><time>2026-04-27T12:34:29.95Z</time></trkpt><trkpt lat="39.537297887848574" lon="8.602684681940982"><ele>425.0</ele><time>2026-04-27T12:34:30.95Z</time></trkpt><trkpt lat="39.53716320943618" lon="8.602732861916524"><ele>425.0</ele><time>2026-04-27T12:34:31.95Z</time></trkpt><trkpt lat="39.53703209717283" lon="8.602806360675553"><ele>425.0</ele><time>2026-04-27T12:34:32.95Z</time></trkpt><trkpt lat="39.536918076753196" lon="8.60290071197642"><ele>427.25</ele><time>2026-04-27T12:34:33.95Z</time></trkpt><trkpt lat="39.536815304761646" lon="8.602981833928386"><ele>429.5</ele><time>2026-04-27T12:34:34.95Z</time></trkpt><trkpt lat="39.53670945959918" lon="8.603039429322436"><ele>431.75</ele><time>2026-04-27T12:34:35.95Z</time></trkpt><trkpt lat="39.536606262248526" lon="8.60304726085893"><ele>434.0</ele><time>2026-04-27T12:34:36.95Z</time></trkpt><trkpt lat="39.53649463610005" lon="8.603042199291252"><ele>434.0</ele><time>2026-04-27T12:34:37.95Z</time></trkpt><trkpt lat="39.536385812424584" lon="8.602995223097658"><ele>434.0</ele><time>2026-04-27T12:34:38.95Z</time></trkpt><trkpt lat="39.536261935220956" lon="8.602920819217454"><ele>434.0</ele><time>2026-04-27T12:34:39.95Z</time></trkpt><trkpt lat="39.536137030715906" lon="8.60285492405642"><ele>434.0</ele><time>2026-04-27T12:34:40.95Z</time></trkpt><trkpt lat="39.536013719306986" lon="8.602773602642657"><ele>427.5</ele><time>2026-04-27T12:34:41.95Z</time></trkpt><trkpt lat="39.53588914731478" lon="8.6026968802564"><ele>421.0</ele><time>2026-04-27T12:34:42.95Z</time></trkpt><trkpt lat="39.53576586134597" lon="8.602630107206698"><ele>414.5</ele><time>2026-04-27T12:34:43.95Z</time></trkpt><trkpt lat="39.535646603995765" lon="8.602581311544578"><ele>408.0</ele><time>2026-04-27T12:34:44.95Z</time></trkpt><trkpt lat="39.53552594313491" lon="8.602550048908755"><ele>408.0</ele><time>2026-04-27T12:34:45.95Z</time></trkpt><trkpt lat="39.535405774502294" lon="8.60253516553182"><ele>408.0</ele><time>2026-04-27T12:34:46.95Z</time></trkpt><trkpt lat="39.53530097366054" lon="8.602500576015833"><ele>408.0</ele><time>2026-04-27T12:34:47.95Z</time></trkpt><trkpt lat="39.53519796214249" lon="8.602424550102477"><ele>408.0</ele><time>2026-04-27T12:34:48.95Z</time></trkpt><trkpt lat="39.53512608628688" lon="8.60229898649334"><ele>410.75</ele><time>2026-04-27T12:34:49.95Z</time></trkpt><trkpt lat="39.5350330712113" lon="8.602175834345582"><ele>413.5</ele><time>2026-04-27T12:34:50.95Z</time></trkpt><trkpt lat="39.534928320056984" lon="8.602075405228762"><ele>416.25</ele><time>2026-04-27T12:34:51.95Z</time></trkpt><trkpt lat="39.5348309141757" lon="8.601952657352037"><ele>419.0</ele><time>2026-04-27T12:34:52.95Z</time></trkpt><trkpt lat="39.534720225076825" lon="8.601833878521873"><ele>416.75</ele><time>2026-04-27T12:34:53.95Z</time></trkpt><trkpt lat="39.53460622683452" lon="8.60173216770302"><ele>414.5</ele><time>2026-04-27T12:34:54.95Z</time></trkpt><trkpt lat="39.53448170098795" lon="8.601636697709232"><ele>412.25</ele><time>2026-04-27T12:34:55.95Z</time></trkpt><trkpt lat="39.53434148419052" lon="8.601552486016315"><ele>410.0</ele><time>2026-04-27T12:34:56.95Z</time></trkpt><trkpt lat="39.53420724710953" lon="8.601472988783597"><ele>410.0</ele><time>2026-04-27T12:34:57.95Z</time></trkpt><trkpt lat="39.53406829458716" lon="8.601397109787083"><ele>410.0</ele><time>2026-04-27T12:34:58.95Z</time></trkpt><trkpt lat="39.5339366890677" lon="8.601317045653756"><ele>410.0</ele><time>2026-04-27T12:34:59.95Z</time></trkpt><trkpt lat="39.533799223304165" lon="8.601239444902935"><ele>410.0</ele><time>2026-04-27T12:35:00.95Z</time></trkpt><trkpt lat="39.533662106236584" lon="8.601158695625102"><ele>404.0</ele><time>2026-04-27T12:35:01.95Z</time></trkpt><trkpt lat="39.533533230870965" lon="8.601076173437985"><ele>398.0</ele><time>2026-04-27T12:35:02.95Z</time></trkpt><trkpt lat="39.5334061555838" lon="8.60099356901935"><ele>392.0</ele><time>2026-04-27T12:35:03.95Z</time></trkpt><trkpt lat="39.533285377824086" lon="8.600923088470331"><ele>386.0</ele><time>2026-04-27T12:35:04.95Z</time></trkpt><trkpt lat="39.53316430108911" lon="8.600865440612974"><ele>386.0</ele><time>2026-04-27T12:35:05.95Z</time></trkpt><trkpt lat="39.533065327642106" lon="8.600834620804207"><ele>386.0</ele><time>2026-04-27T12:35:06.95Z</time></trkpt><trkpt lat="39.53295052537356" lon="8.6008206486099"><ele>386.0</ele><time>2026-04-27T12:35:07.95Z</time></trkpt><trkpt lat="39.532837362072605" lon="8.600787014812735"><ele>386.0</ele><time>2026-04-27T12:35:08.95Z</time></trkpt><trkpt lat="39.53272627470811" lon="8.600746671118438"><ele>386.0</ele><time>2026-04-27T12:35:09.95Z</time></trkpt><trkpt lat="39.53262223546999" lon="8.600691749848334"><ele>386.4</ele><time>2026-04-27T12:35:10.95Z</time></trkpt><trkpt lat="39.53253126873562" lon="8.600639695684386"><ele>386.8</ele><time>2026-04-27T12:35:11.951Z</time></trkpt><trkpt lat="39.53243893303779" lon="8.600589115932483"><ele>387.2</ele><time>2026-04-27T12:35:12.951Z</time></trkpt><trkpt lat="39.53232551387433" lon="8.60055437228222"><ele>387.59999999999997</ele><time>2026-04-27T12:35:13.951Z</time></trkpt><trkpt lat="39.532195361089535" lon="8.600571532155627"><ele>388.0</ele><time>2026-04-27T12:35:14.951Z</time></trkpt><trkpt lat="39.5318634763398" lon="8.6006156332404"><ele>386.5</ele><time>2026-04-27T12:35:15.951Z</time></trkpt><trkpt lat="39.53173352215176" lon="8.600646543443602"><ele>385.0</ele><time>2026-04-27T12:35:16.951Z</time></trkpt><trkpt lat="39.5316071167647" lon="8.600681243157599"><ele>383.5</ele><time>2026-04-27T12:35:17.951Z</time></trkpt><trkpt lat="39.531486116501405" lon="8.600721509634253"><ele>382.0</ele><time>2026-04-27T12:35:18.951Z</time></trkpt><trkpt lat="39.53136514511906" lon="8.600761786576143"><ele>382.0</ele><time>2026-04-27T12:35:19.951Z</time></trkpt><trkpt lat="39.53124883140469" lon="8.600811836993937"><ele>382.0</ele><time>2026-04-27T12:35:20.951Z</time></trkpt><trkpt lat="39.53113877135743" lon="8.600858885780626"><ele>382.0</ele><time>2026-04-27T12:35:21.951Z</time></trkpt><trkpt lat="39.531017912422165" lon="8.600887622886493"><ele>382.0</ele><time>2026-04-27T12:35:22.951Z</time></trkpt><trkpt lat="39.53089578127781" lon="8.600903538256107"><ele>378.25</ele><time>2026-04-27T12:35:23.951Z</time></trkpt><trkpt lat="39.53076814255579" lon="8.600921097348722"><ele>374.5</ele><time>2026-04-27T12:35:24.951Z</time></trkpt><trkpt lat="39.5306411507245" lon="8.600936999758076"><ele>370.75</ele><time>2026-04-27T12:35:25.951Z</time></trkpt><trkpt lat="39.530511627738655" lon="8.600953522177281"><ele>367.0</ele><time>2026-04-27T12:35:26.951Z</time></trkpt><trkpt lat="39.5303885581566" lon="8.600973673308786"><ele>362.25</ele><time>2026-04-27T12:35:27.951Z</time></trkpt><trkpt lat="39.53027268494012" lon="8.600991732110822"><ele>357.5</ele><time>2026-04-27T12:35:28.951Z</time></trkpt><trkpt lat="39.5301577978337" lon="8.601020232150018"><ele>352.75</ele><time>2026-04-27T12:35:29.951Z</time></trkpt><trkpt lat="39.53004954773825" lon="8.601081116474274"><ele>348.0</ele><time>2026-04-27T12:35:30.951Z</time></trkpt><trkpt lat="39.52995029672156" lon="8.601149926204178"><ele>352.25</ele><time>2026-04-27T12:35:31.951Z</time></trkpt><trkpt lat="39.52984976516827" lon="8.601247314660405"><ele>356.5</ele><time>2026-04-27T12:35:32.951Z</time></trkpt><trkpt lat="39.52976425972502" lon="8.601361490202393"><ele>360.75</ele><time>2026-04-27T12:35:33.951Z</time></trkpt><trkpt lat="39.52967603480206" lon="8.60145917279542"><ele>365.0</ele><time>2026-04-27T12:35:34.951Z</time></trkpt><trkpt lat="39.52959824219666" lon="8.601573520595883"><ele>359.75</ele><time>2026-04-27T12:35:35.951Z</time></trkpt><trkpt lat="39.52952004494524" lon="8.601699790694058"><ele>354.5</ele><time>2026-04-27T12:35:36.951Z</time></trkpt><trkpt lat="39.529446733382514" lon="8.601822432872797"><ele>349.25</ele><time>2026-04-27T12:35:37.951Z</time></trkpt><trkpt lat="39.52937679123231" lon="8.60198079328098"><ele>344.0</ele><time>2026-04-27T12:35:38.951Z</time></trkpt><trkpt lat="39.52932565512051" lon="8.602111544049862"><ele>344.0</ele><time>2026-04-27T12:35:39.951Z</time></trkpt><trkpt lat="39.52927885188729" lon="8.602237867597529"><ele>344.0</ele><time>2026-04-27T12:35:40.951Z</time></trkpt><trkpt lat="39.529239507322124" lon="8.602369975168099"><ele>344.0</ele><time>2026-04-27T12:35:41.951Z</time></trkpt><trkpt lat="39.52922517890378" lon="8.60252143656487"><ele>344.0</ele><time>2026-04-27T12:35:42.951Z</time></trkpt><trkpt lat="39.52922207754076" lon="8.602659547846919"><ele>344.0</ele><time>2026-04-27T12:35:43.951Z</time></trkpt><trkpt lat="39.529205359415776" lon="8.602798757756412"><ele>344.6</ele><time>2026-04-27T12:35:44.951Z</time></trkpt><trkpt lat="39.52916409701931" lon="8.602921448210036"><ele>345.2</ele><time>2026-04-27T12:35:45.951Z</time></trkpt><trkpt lat="39.52911167280411" lon="8.603045989836625"><ele>345.8</ele><time>2026-04-27T12:35:46.951Z</time></trkpt><trkpt lat="39.52904831505324" lon="8.603165354101316"><ele>346.40000000000003</ele><time>2026-04-27T12:35:47.951Z</time></trkpt><trkpt lat="39.528983281829916" lon="8.603288865950697"><ele>347.0</ele><time>2026-04-27T12:35:48.951Z</time></trkpt><trkpt lat="39.52891870790014" lon="8.603411505430497"><ele>347.0</ele><time>2026-04-27T12:35:49.951Z</time></trkpt><trkpt lat="39.528859819641994" lon="8.603523347998042"><ele>347.0</ele><time>2026-04-27T12:35:50.951Z</time></trkpt><trkpt lat="39.52880492033594" lon="8.603637817365476"><ele>347.0</ele><time>2026-04-27T12:35:51.951Z</time></trkpt><trkpt lat="39.52874748446245" lon="8.603751424063494"><ele>347.0</ele><time>2026-04-27T12:35:52.951Z</time></trkpt><trkpt lat="39.52868768064622" lon="8.603867140417432"><ele>347.0</ele><time>2026-04-27T12:35:53.951Z</time></trkpt><trkpt lat="39.528627423218076" lon="8.603984725488983"><ele>344.0</ele><time>2026-04-27T12:35:54.951Z</time></trkpt><trkpt lat="39.52857074286901" lon="8.604102666279433"><ele>341.0</ele><time>2026-04-27T12:35:55.951Z</time></trkpt><trkpt lat="39.528514831091314" lon="8.60421404769086"><ele>338.0</ele><time>2026-04-27T12:35:56.951Z</time></trkpt><trkpt lat="39.528458422208736" lon="8.604307353034987"><ele>335.0</ele><time>2026-04-27T12:35:57.951Z</time></trkpt><trkpt lat="39.528385452723214" lon="8.60437481293205"><ele>332.0</ele><time>2026-04-27T12:35:58.951Z</time></trkpt><trkpt lat="39.52830855218181" lon="8.604412931821903"><ele>332.0</ele><time>2026-04-27T12:35:59.951Z</time></trkpt><trkpt lat="39.528235128160624" lon="8.604439066557642"><ele>332.0</ele><time>2026-04-27T12:36:00.951Z</time></trkpt><trkpt lat="39.52809017043646" lon="8.604435842615546"><ele>332.0</ele><time>2026-04-27T12:36:02.951Z</time></trkpt><trkpt lat="39.52802861707524" lon="8.604489319020944"><ele>332.0</ele><time>2026-04-27T12:36:03.951Z</time></trkpt><trkpt lat="39.52797247900114" lon="8.604569055217587"><ele>332.0</ele><time>2026-04-27T12:36:04.951Z</time></trkpt><trkpt lat="39.52790744920094" lon="8.604639875543462"><ele>332.20000000000005</ele><time>2026-04-27T12:36:05.951Z</time></trkpt><trkpt lat="39.52784521248157" lon="8.604727673920912"><ele>332.4</ele><time>2026-04-27T12:36:06.951Z</time></trkpt><trkpt lat="39.52775623538557" lon="8.604811303555877"><ele>332.6</ele><time>2026-04-27T12:36:07.951Z</time></trkpt><trkpt lat="39.5276907700785" lon="8.604893349720397"><ele>332.79999999999995</ele><time>2026-04-27T12:36:08.951Z</time></trkpt><trkpt lat="39.52764025289296" lon="8.604974979553958"><ele>333.0</ele><time>2026-04-27T12:36:09.951Z</time></trkpt><trkpt lat="39.527590395225346" lon="8.605063791495686"><ele>333.0</ele><time>2026-04-27T12:36:11.951Z</time></trkpt><trkpt lat="39.52753070545065" lon="8.605016220557324"><ele>333.0</ele><time>2026-04-27T12:36:21.952Z</time></trkpt><trkpt lat="39.52746417682349" lon="8.604945540659074"><ele>333.0</ele><time>2026-04-27T12:36:23.952Z</time></trkpt><trkpt lat="39.52735915404149" lon="8.60485328190045"><ele>333.0</ele><time>2026-04-27T12:36:25.952Z</time></trkpt><trkpt lat="39.52728235707051" lon="8.604795094349697"><ele>333.0</ele><time>2026-04-27T12:36:26.952Z</time></trkpt><trkpt lat="39.527205027027584" lon="8.604762283764925"><ele>333.0</ele><time>2026-04-27T12:36:27.952Z</time></trkpt><trkpt lat="39.527129166899" lon="8.604738938872194"><ele>333.0</ele><time>2026-04-27T12:36:28.952Z</time></trkpt><trkpt lat="39.52703671454911" lon="8.60476335321662"><ele>333.0</ele><time>2026-04-27T12:36:29.95Z</time></trkpt><trkpt lat="39.526962525543986" lon="8.604829142601792"><ele>333.0</ele><time>2026-04-27T12:36:30.95Z</time></trkpt><trkpt lat="39.52690836747492" lon="8.604925874012446"><ele>333.0</ele><time>2026-04-27T12:36:31.95Z</time></trkpt><trkpt lat="39.52685054710143" lon="8.605020534979642"><ele>333.0</ele><time>2026-04-27T12:36:32.95Z</time></trkpt><trkpt lat="39.52679522144099" lon="8.605107186114765"><ele>332.2</ele><time>2026-04-27T12:36:33.95Z</time></trkpt><trkpt lat="39.52673596223465" lon="8.605199998137866"><ele>331.4</ele><time>2026-04-27T12:36:34.95Z</time></trkpt><trkpt lat="39.52667480595838" lon="8.605295782005323"><ele>330.59999999999997</ele><time>2026-04-27T12:36:35.951Z</time></trkpt><trkpt lat="39.52661008338322" lon="8.605396297742887"><ele>329.79999999999995</ele><time>2026-04-27T12:36:36.95Z</time></trkpt><trkpt lat="39.52654747112611" lon="8.605493779653004"><ele>329.0</ele><time>2026-04-27T12:36:37.95Z</time></trkpt><trkpt lat="39.526487574591606" lon="8.605587033421742"><ele>329.0</ele><time>2026-04-27T12:36:38.95Z</time></trkpt><trkpt lat="39.52642700099977" lon="8.605686213496583"><ele>329.0</ele><time>2026-04-27T12:36:39.95Z</time></trkpt><trkpt lat="39.52636138022308" lon="8.605780168743946"><ele>329.0</ele><time>2026-04-27T12:36:40.95Z</time></trkpt><trkpt lat="39.526297030799235" lon="8.605866988958212"><ele>329.0</ele><time>2026-04-27T12:36:41.95Z</time></trkpt><trkpt lat="39.526189912138115" lon="8.605874745410704"><ele>329.0</ele><time>2026-04-27T12:36:42.95Z</time></trkpt><trkpt lat="39.52609488164642" lon="8.605862525067304"><ele>329.2</ele><time>2026-04-27T12:36:43.95Z</time></trkpt><trkpt lat="39.525992120461886" lon="8.605849213907899"><ele>329.4</ele><time>2026-04-27T12:36:44.95Z</time></trkpt><trkpt lat="39.52588832855678" lon="8.605844226947436"><ele>329.6</ele><time>2026-04-27T12:36:45.95Z</time></trkpt><trkpt lat="39.5257870017964" lon="8.605803739336709"><ele>329.8</ele><time>2026-04-27T12:36:46.95Z</time></trkpt><trkpt lat="39.52568756081294" lon="8.605731812013108"><ele>330.0</ele><time>2026-04-27T12:36:47.95Z</time></trkpt><trkpt lat="39.525595201737936" lon="8.605633813332966"><ele>330.0</ele><time>2026-04-27T12:36:48.95Z</time></trkpt><trkpt lat="39.52552290900622" lon="8.605534570748226"><ele>330.0</ele><time>2026-04-27T12:36:49.95Z</time></trkpt><trkpt lat="39.52546194861207" lon="8.605436469482306"><ele>330.0</ele><time>2026-04-27T12:36:50.95Z</time></trkpt><trkpt lat="39.5254210424377" lon="8.605339561366442"><ele>330.0</ele><time>2026-04-27T12:36:51.95Z</time></trkpt><trkpt lat="39.525418644760734" lon="8.605253791825016"><ele>330.0</ele><time>2026-04-27T12:36:52.95Z</time></trkpt><trkpt lat="39.525365757754436" lon="8.60517460742992"><ele>330.0</ele><time>2026-04-27T12:36:54.951Z</time></trkpt><trkpt lat="39.525545086526876" lon="8.60496261412319"><ele>328.8333333333333</ele><time>2026-04-27T12:36:55.951Z</time></trkpt><trkpt lat="39.52559855788105" lon="8.60486296066469"><ele>327.6666666666667</ele><time>2026-04-27T12:36:56.951Z</time></trkpt><trkpt lat="39.525641859301" lon="8.604762388672274"><ele>326.5</ele><time>2026-04-27T12:36:57.951Z</time></trkpt><trkpt lat="39.52567356407819" lon="8.604660359476245"><ele>325.33333333333337</ele><time>2026-04-27T12:36:58.951Z</time></trkpt><trkpt lat="39.5257019741101" lon="8.604555486005953"><ele>324.1666666666667</ele><time>2026-04-27T12:36:59.951Z</time></trkpt><trkpt lat="39.52574103165059" lon="8.604461092748359"><ele>323.0</ele><time>2026-04-27T12:37:00.951Z</time></trkpt><trkpt lat="39.52577982455456" lon="8.6043596053863"><ele>322.79999999999995</ele><time>2026-04-27T12:37:01.951Z</time></trkpt><trkpt lat="39.52582162356726" lon="8.604250522410172"><ele>322.6</ele><time>2026-04-27T12:37:02.951Z</time></trkpt><trkpt lat="39.52586643292282" lon="8.604140238500019"><ele>322.4</ele><time>2026-04-27T12:37:03.951Z</time></trkpt><trkpt lat="39.52591405237902" lon="8.604023281591482"><ele>322.20000000000005</ele><time>2026-04-27T12:37:04.951Z</time></trkpt><trkpt lat="39.52596305000668" lon="8.603899748912479"><ele>322.0</ele><time>2026-04-27T12:37:05.951Z</time></trkpt><trkpt lat="39.52601309576542" lon="8.603773016983302"><ele>322.0</ele><time>2026-04-27T12:37:06.951Z</time></trkpt><trkpt lat="39.52606368151189" lon="8.60364059746583"><ele>322.0</ele><time>2026-04-27T12:37:07.951Z</time></trkpt><trkpt lat="39.52611356715942" lon="8.603511179063911"><ele>322.0</ele><time>2026-04-27T12:37:08.951Z</time></trkpt><trkpt lat="39.526160861301335" lon="8.60339047852395"><ele>322.0</ele><time>2026-04-27T12:37:09.951Z</time></trkpt><trkpt lat="39.526203547096635" lon="8.60326691638032"><ele>322.0</ele><time>2026-04-27T12:37:10.951Z</time></trkpt><trkpt lat="39.52624668014686" lon="8.603148558307648"><ele>320.5</ele><time>2026-04-27T12:37:11.951Z</time></trkpt><trkpt lat="39.52628843223635" lon="8.603027237417818"><ele>319.0</ele><time>2026-04-27T12:37:12.951Z</time></trkpt><trkpt lat="39.52633574846926" lon="8.602912194915971"><ele>317.5</ele><time>2026-04-27T12:37:13.951Z</time></trkpt><trkpt lat="39.52637028670784" lon="8.602796280165174"><ele>316.0</ele><time>2026-04-27T12:37:14.951Z</time></trkpt><trkpt lat="39.52639581059002" lon="8.602695736381447"><ele>314.5</ele><time>2026-04-27T12:37:15.951Z</time></trkpt><trkpt lat="39.52640588773629" lon="8.602610901405033"><ele>313.0</ele><time>2026-04-27T12:37:16.951Z</time></trkpt><trkpt lat="39.52638375878274" lon="8.602454010731877"><ele>312.2</ele><time>2026-04-27T12:37:18.951Z</time></trkpt><trkpt lat="39.52632368547837" lon="8.602304188596223"><ele>311.4</ele><time>2026-04-27T12:37:20.951Z</time></trkpt><trkpt lat="39.526289176881974" lon="8.602207098483145"><ele>310.59999999999997</ele><time>2026-04-27T12:37:21.951Z</time></trkpt><trkpt lat="39.52626531519141" lon="8.602107979295754"><ele>309.8</ele><time>2026-04-27T12:37:22.951Z</time></trkpt><trkpt lat="39.52623204168699" lon="8.601999261689217"><ele>309.0</ele><time>2026-04-27T12:37:23.951Z</time></trkpt><trkpt lat="39.526200395684796" lon="8.601893911282042"><ele>309.0</ele><time>2026-04-27T12:37:24.951Z</time></trkpt><trkpt lat="39.526180047096645" lon="8.60178817412313"><ele>309.0</ele><time>2026-04-27T12:37:25.951Z</time></trkpt><trkpt lat="39.52617608608458" lon="8.601691061254279"><ele>309.0</ele><time>2026-04-27T12:37:26.951Z</time></trkpt><trkpt lat="39.5261687894483" lon="8.601606700080394"><ele>309.0</ele><time>2026-04-27T12:37:27.951Z</time></trkpt><trkpt lat="39.52612913950743" lon="8.601519900412168"><ele>309.0</ele><time>2026-04-27T12:37:30.951Z</time></trkpt><trkpt lat="39.52606494361516" lon="8.601432924743627"><ele>309.0</ele><time>2026-04-27T12:37:33.951Z</time></trkpt><trkpt lat="39.525951444444786" lon="8.6013217476911"><ele>309.0</ele><time>2026-04-27T12:37:35.951Z</time></trkpt><trkpt lat="39.52589744736211" lon="8.60123176744037"><ele>309.0</ele><time>2026-04-27T12:37:36.951Z</time></trkpt><trkpt lat="39.5258271608226" lon="8.601142560500016"><ele>309.0</ele><time>2026-04-27T12:37:37.951Z</time></trkpt><trkpt lat="39.52573726654944" lon="8.601059225519625"><ele>309.0</ele><time>2026-04-27T12:37:38.951Z</time></trkpt><trkpt lat="39.52563800018649" lon="8.60099623705443"><ele>309.0</ele><time>2026-04-27T12:37:39.951Z</time></trkpt><trkpt lat="39.52554926406164" lon="8.60094168917951"><ele>307.4</ele><time>2026-04-27T12:37:40.951Z</time></trkpt><trkpt lat="39.52546249267625" lon="8.600882694951498"><ele>305.79999999999995</ele><time>2026-04-27T12:37:41.951Z</time></trkpt><trkpt lat="39.52537480382265" lon="8.600809698330814"><ele>304.20000000000005</ele><time>2026-04-27T12:37:42.951Z</time></trkpt><trkpt lat="39.5253278814737" lon="8.600703715141165"><ele>302.6</ele><time>2026-04-27T12:37:43.951Z</time></trkpt><trkpt lat="39.52529132959568" lon="8.600607184621381"><ele>301.0</ele><time>2026-04-27T12:37:44.951Z</time></trkpt><trkpt lat="39.5252798039852" lon="8.600508626071134"><ele>300.6</ele><time>2026-04-27T12:37:45.951Z</time></trkpt><trkpt lat="39.52528602778809" lon="8.60040771510301"><ele>300.20000000000005</ele><time>2026-04-27T12:37:46.951Z</time></trkpt><trkpt lat="39.525316716860324" lon="8.60032669175417"><ele>299.79999999999995</ele><time>2026-04-27T12:37:48.951Z</time></trkpt><trkpt lat="39.52529048000656" lon="8.600432111026247"><ele>299.4</ele><time>2026-04-27T12:37:54.951Z</time></trkpt><trkpt lat="39.525155977983246" lon="8.600552039577778"><ele>299.0</ele><time>2026-04-27T12:37:55.951Z</time></trkpt><trkpt lat="39.525186621596575" lon="8.600704164552775"><ele>299.0</ele><time>2026-04-27T12:37:56.951Z</time></trkpt><trkpt lat="39.52522372533667" lon="8.600838358327128"><ele>299.0</ele><time>2026-04-27T12:37:57.951Z</time></trkpt><trkpt lat="39.52530261312718" lon="8.600980597148094"><ele>299.0</ele><time>2026-04-27T12:37:58.951Z</time></trkpt><trkpt lat="39.525394171208326" lon="8.601070544421956"><ele>299.0</ele><time>2026-04-27T12:37:59.951Z</time></trkpt><trkpt lat="39.52547098177235" lon="8.601147831870046"><ele>299.5</ele><time>2026-04-27T12:38:00.952Z</time></trkpt><trkpt lat="39.525646596065364" lon="8.601077370901114"><ele>300.0</ele><time>2026-04-27T12:38:01.952Z</time></trkpt><trkpt lat="39.525737857505554" lon="8.601149743680704"><ele>300.5</ele><time>2026-04-27T12:38:02.952Z</time></trkpt><trkpt lat="39.52584714337815" lon="8.601240852164434"><ele>301.0</ele><time>2026-04-27T12:38:03.952Z</time></trkpt><trkpt lat="39.52593290821792" lon="8.601336054606776"><ele>303.0</ele><time>2026-04-27T12:38:04.952Z</time></trkpt><trkpt lat="39.526006114133956" lon="8.601418905276551"><ele>305.0</ele><time>2026-04-27T12:38:05.952Z</time></trkpt><trkpt lat="39.526086592775606" lon="8.60149496869558"><ele>307.0</ele><time>2026-04-27T12:38:07.952Z</time></trkpt><trkpt lat="39.52603030817455" lon="8.601416856820943"><ele>309.0</ele><time>2026-04-27T12:38:18.952Z</time></trkpt><trkpt lat="39.52612642299577" lon="8.601180795570933"><ele>307.4</ele><time>2026-04-27T12:38:20.952Z</time></trkpt><trkpt lat="39.52605625807747" lon="8.601116619954158"><ele>305.79999999999995</ele><time>2026-04-27T12:38:21.952Z</time></trkpt><trkpt lat="39.52608280121408" lon="8.601017069272794"><ele>304.20000000000005</ele><time>2026-04-27T12:38:23.952Z</time></trkpt><trkpt lat="39.52611294573914" lon="8.600876434674245"><ele>302.6</ele><time>2026-04-27T12:38:26.952Z</time></trkpt><trkpt lat="39.526038548649396" lon="8.600815007461081"><ele>301.0</ele><time>2026-04-27T12:38:28.952Z</time></trkpt><trkpt lat="39.52622027575459" lon="8.600672994643851"><ele>301.8333333333333</ele><time>2026-04-27T12:38:32.952Z</time></trkpt><trkpt lat="39.52623940261501" lon="8.600554111548457"><ele>302.66666666666663</ele><time>2026-04-27T12:38:33.952Z</time></trkpt><trkpt lat="39.52628932121542" lon="8.6004981441818"><ele>303.5</ele><time>2026-04-27T12:38:34.952Z</time></trkpt><trkpt lat="39.52633483161659" lon="8.600428384368437"><ele>304.3333333333333</ele><time>2026-04-27T12:38:35.95Z</time></trkpt><trkpt lat="39.52636606482944" lon="8.600342651191223"><ele>305.1666666666667</ele><time>2026-04-27T12:38:36.951Z</time></trkpt><trkpt lat="39.52641659609128" lon="8.6002210202826"><ele>306.0</ele><time>2026-04-27T12:38:38.951Z</time></trkpt><trkpt lat="39.52641448706365" lon="8.6001285167257"><ele>306.0</ele><time>2026-04-27T12:38:39.951Z</time></trkpt><trkpt lat="39.52640689542363" lon="8.600024802230049"><ele>306.0</ele><time>2026-04-27T12:38:40.951Z</time></trkpt><trkpt lat="39.52647600400083" lon="8.599975942027308"><ele>306.0</ele><time>2026-04-27T12:38:42.951Z</time></trkpt><trkpt lat="39.52654813257026" lon="8.600004735164259"><ele>306.0</ele><time>2026-04-27T12:38:43.951Z</time></trkpt><trkpt lat="39.52662205599718" lon="8.600040154264974"><ele>306.0</ele><time>2026-04-27T12:38:44.951Z</time></trkpt><trkpt lat="39.526697037944125" lon="8.600124268787226"><ele>306.0</ele><time>2026-04-27T12:38:45.951Z</time></trkpt><trkpt lat="39.52677724767048" lon="8.600171544560643"><ele>306.0</ele><time>2026-04-27T12:38:46.951Z</time></trkpt><trkpt lat="39.526859857382014" lon="8.600236886686734"><ele>306.0</ele><time>2026-04-27T12:38:47.951Z</time></trkpt><trkpt lat="39.52694918828958" lon="8.600257257198185"><ele>306.0</ele><time>2026-04-27T12:38:48.951Z</time></trkpt><trkpt lat="39.5270564576482" lon="8.600208656996672"><ele>306.0</ele><time>2026-04-27T12:38:50.951Z</time></trkpt><trkpt lat="39.527120153952374" lon="8.600178139105367"><ele>306.0</ele><time>2026-04-27T12:38:52.951Z</time></trkpt><trkpt lat="39.52707772934319" lon="8.600238475703021"><ele>306.0</ele><time>2026-04-27T12:38:53.951Z</time></trkpt><trkpt lat="39.52696683619624" lon="8.600337020470663"><ele>306.75</ele><time>2026-04-27T12:38:54.951Z</time></trkpt><trkpt lat="39.52703559779194" lon="8.600522688144876"><ele>307.5</ele><time>2026-04-27T12:39:01.951Z</time></trkpt><trkpt lat="39.52698290284883" lon="8.600672151213379"><ele>308.25</ele><time>2026-04-27T12:39:03.951Z</time></trkpt><trkpt lat="39.52706539729761" lon="8.600812006991"><ele>309.0</ele><time>2026-04-27T12:39:04.951Z</time></trkpt><trkpt lat="39.52714477722424" lon="8.600935818057298"><ele>311.0</ele><time>2026-04-27T12:39:05.951Z</time></trkpt><trkpt lat="39.52723854189499" lon="8.600516625461367"><ele>313.0</ele><time>2026-04-27T12:39:06.951Z</time></trkpt><trkpt lat="39.52735075931106" lon="8.600601080645857"><ele>313.0</ele><time>2026-04-27T12:39:08.951Z</time></trkpt><trkpt lat="39.5274034722991" lon="8.600672460027317"><ele>313.0</ele><time>2026-04-27T12:39:09.951Z</time></trkpt><trkpt lat="39.52747330107776" lon="8.600733144173347"><ele>313.0</ele><time>2026-04-27T12:39:10.951Z</time></trkpt><trkpt lat="39.52751868231022" lon="8.600815644523363"><ele>313.0</ele><time>2026-04-27T12:39:11.951Z</time></trkpt><trkpt lat="39.52755808834723" lon="8.600894147944631"><ele>313.0</ele><time>2026-04-27T12:39:12.951Z</time></trkpt><trkpt lat="39.52760195142371" lon="8.60097543153947"><ele>313.0</ele><time>2026-04-27T12:39:13.951Z</time></trkpt><trkpt lat="39.52764859791865" lon="8.601055438114832"><ele>313.0</ele><time>2026-04-27T12:39:14.951Z</time></trkpt><trkpt lat="39.52769596494449" lon="8.601128661112075"><ele>313.0</ele><time>2026-04-27T12:39:15.951Z</time></trkpt><trkpt lat="39.527742431608026" lon="8.60119373767511"><ele>313.0</ele><time>2026-04-27T12:39:16.951Z</time></trkpt><trkpt lat="39.527799972124264" lon="8.60129967301797"><ele>313.0</ele><time>2026-04-27T12:39:18.951Z</time></trkpt><trkpt lat="39.527871615306005" lon="8.601421764101733"><ele>313.0</ele><time>2026-04-27T12:39:20.951Z</time></trkpt><trkpt lat="39.527915228271226" lon="8.601484533738159"><ele>313.0</ele><time>2026-04-27T12:39:21.951Z</time></trkpt><trkpt lat="39.52796432528727" lon="8.601550666832583"><ele>314.8</ele><time>2026-04-27T12:39:22.951Z</time></trkpt><trkpt lat="39.52802431413243" lon="8.601697903880023"><ele>316.6</ele><time>2026-04-27T12:39:24.951Z</time></trkpt><trkpt lat="39.52804709226579" lon="8.601848095435493"><ele>318.40000000000003</ele><time>2026-04-27T12:39:26.951Z</time></trkpt><trkpt lat="39.5280612671603" lon="8.601935429000948"><ele>320.20000000000005</ele><time>2026-04-27T12:39:27.951Z</time></trkpt><trkpt lat="39.52807650181648" lon="8.602022517985253"><ele>322.0</ele><time>2026-04-27T12:39:28.951Z</time></trkpt><trkpt lat="39.52808298328194" lon="8.60211563617306"><ele>322.0</ele><time>2026-04-27T12:39:29.951Z</time></trkpt><trkpt lat="39.528100695702" lon="8.602199183877211"><ele>322.0</ele><time>2026-04-27T12:39:30.951Z</time></trkpt><trkpt lat="39.528099010000794" lon="8.602283709779798"><ele>322.0</ele><time>2026-04-27T12:39:31.951Z</time></trkpt><trkpt lat="39.52813029985007" lon="8.602360568595838"><ele>322.0</ele><time>2026-04-27T12:39:32.951Z</time></trkpt><trkpt lat="39.52817112691717" lon="8.602434769377998"><ele>322.0</ele><time>2026-04-27T12:39:33.951Z</time></trkpt><trkpt lat="39.52824881908605" lon="8.602481240396264"><ele>322.0</ele><time>2026-04-27T12:39:34.951Z</time></trkpt><trkpt lat="39.52829239055854" lon="8.602559804912012"><ele>322.0</ele><time>2026-04-27T12:39:35.951Z</time></trkpt><trkpt lat="39.52834674427077" lon="8.602648793005967"><ele>322.0</ele><time>2026-04-27T12:39:36.951Z</time></trkpt><trkpt lat="39.52837340824698" lon="8.602751065386537"><ele>322.0</ele><time>2026-04-27T12:39:37.951Z</time></trkpt><trkpt lat="39.528377630251256" lon="8.602835557778347"><ele>322.0</ele><time>2026-04-27T12:39:38.951Z</time></trkpt><trkpt lat="39.528361732298386" lon="8.60292925458758"><ele>322.0</ele><time>2026-04-27T12:39:39.951Z</time></trkpt><trkpt lat="39.528376090144135" lon="8.603016044876297"><ele>322.0</ele><time>2026-04-27T12:39:40.951Z</time></trkpt><trkpt lat="39.52837775549476" lon="8.603126904671187"><ele>322.0</ele><time>2026-04-27T12:39:41.951Z</time></trkpt><trkpt lat="39.52836901162194" lon="8.603241028492294"><ele>322.66666666666663</ele><time>2026-04-27T12:39:42.951Z</time></trkpt><trkpt lat="39.528373510372376" lon="8.603362340087813"><ele>323.3333333333333</ele><time>2026-04-27T12:39:43.951Z</time></trkpt><trkpt lat="39.52837437235114" lon="8.603469857655925"><ele>324.0</ele><time>2026-04-27T12:39:44.951Z</time></trkpt><trkpt lat="39.528375195942616" lon="8.603575491375787"><ele>324.6666666666667</ele><time>2026-04-27T12:39:45.951Z</time></trkpt><trkpt lat="39.528392523191926" lon="8.603681200666148"><ele>325.33333333333337</ele><time>2026-04-27T12:39:46.952Z</time></trkpt><trkpt lat="39.528394706465825" lon="8.603795370718032"><ele>326.0</ele><time>2026-04-27T12:39:47.952Z</time></trkpt><trkpt lat="39.52839611489053" lon="8.603902451468766"><ele>327.20000000000005</ele><time>2026-04-27T12:39:48.952Z</time></trkpt><trkpt lat="39.528399350995606" lon="8.60398459576671"><ele>328.40000000000003</ele><time>2026-04-27T12:39:49.952Z</time></trkpt><trkpt lat="39.52839315621654" lon="8.604124338661562"><ele>329.6</ele><time>2026-04-27T12:39:51.952Z</time></trkpt><trkpt lat="39.528382189839114" lon="8.60422079080009"><ele>330.8</ele><time>2026-04-27T12:39:53.952Z</time></trkpt><trkpt lat="39.528437391149446" lon="8.604174530611996"><ele>332.0</ele><time>2026-04-27T12:42:08.964Z</time></trkpt><trkpt lat="39.528234901224465" lon="8.604228860232467"><ele>332.0</ele><time>2026-04-27T12:47:48.107Z</time></trkpt><trkpt lat="39.52832085306087" lon="8.604249567075657"><ele>332.0</ele><time>2026-04-27T12:52:56.966Z</time></trkpt><trkpt lat="39.528408455185925" lon="8.604222902534138"><ele>332.0</ele><time>2026-04-27T13:07:37.972Z</time></trkpt><trkpt lat="39.528319434754486" lon="8.604322687109981"><ele>332.0</ele><time>2026-04-27T13:17:02.972Z</time></trkpt><trkpt lat="39.52822163035878" lon="8.604359478673388"><ele>332.0</ele><time>2026-04-27T13:17:04.972Z</time></trkpt><trkpt lat="39.52815827819536" lon="8.60439960698519"><ele>332.0</ele><time>2026-04-27T13:17:05.972Z</time></trkpt><trkpt lat="39.52809443369313" lon="8.604452289501776"><ele>332.0</ele><time>2026-04-27T13:17:06.972Z</time></trkpt><trkpt lat="39.528022423448526" lon="8.60451964004741"><ele>332.0</ele><time>2026-04-27T13:17:07.972Z</time></trkpt><trkpt lat="39.52794545812971" lon="8.604605936400523"><ele>332.0</ele><time>2026-04-27T13:17:08.972Z</time></trkpt><trkpt lat="39.527870266454556" lon="8.604697463845966"><ele>332.0</ele><time>2026-04-27T13:17:09.972Z</time></trkpt><trkpt lat="39.52778486619506" lon="8.604776093427907"><ele>332.20000000000005</ele><time>2026-04-27T13:17:10.972Z</time></trkpt><trkpt lat="39.52772098286451" lon="8.60488449534017"><ele>332.4</ele><time>2026-04-27T13:17:11.972Z</time></trkpt><trkpt lat="39.52764651887135" lon="8.604987256045481"><ele>332.6</ele><time>2026-04-27T13:17:12.972Z</time></trkpt><trkpt lat="39.527590251282675" lon="8.605095120142728"><ele>332.79999999999995</ele><time>2026-04-27T13:17:13.972Z</time></trkpt><trkpt lat="39.52754835744322" lon="8.605206318939675"><ele>333.0</ele><time>2026-04-27T13:17:14.972Z</time></trkpt><trkpt lat="39.527533123265584" lon="8.605322924158362"><ele>334.0</ele><time>2026-04-27T13:17:15.972Z</time></trkpt><trkpt lat="39.52753626227126" lon="8.605446010260094"><ele>335.0</ele><time>2026-04-27T13:17:16.972Z</time></trkpt><trkpt lat="39.52754934674635" lon="8.60557478864093"><ele>336.0</ele><time>2026-04-27T13:17:17.972Z</time></trkpt><trkpt lat="39.527572027969434" lon="8.60570830402855"><ele>337.0</ele><time>2026-04-27T13:17:18.972Z</time></trkpt><trkpt lat="39.52760281707378" lon="8.605842423884512"><ele>338.0</ele><time>2026-04-27T13:17:19.972Z</time></trkpt><trkpt lat="39.52763716770219" lon="8.605971781842456"><ele>338.0</ele><time>2026-04-27T13:17:20.972Z</time></trkpt><trkpt lat="39.52766609710794" lon="8.606108953884428"><ele>338.0</ele><time>2026-04-27T13:17:21.972Z</time></trkpt><trkpt lat="39.52769601808615" lon="8.606244032880733"><ele>338.0</ele><time>2026-04-27T13:17:22.972Z</time></trkpt><trkpt lat="39.52773274841998" lon="8.606368800774511"><ele>338.0</ele><time>2026-04-27T13:17:23.972Z</time></trkpt><trkpt lat="39.52777448958443" lon="8.606473589996368"><ele>338.0</ele><time>2026-04-27T13:17:24.972Z</time></trkpt><trkpt lat="39.52781250927445" lon="8.606558035531704"><ele>338.6666666666667</ele><time>2026-04-27T13:17:25.972Z</time></trkpt><trkpt lat="39.52782599459143" lon="8.60665231004092"><ele>339.33333333333337</ele><time>2026-04-27T13:17:27.972Z</time></trkpt><trkpt lat="39.527787967016515" lon="8.606733536365088"><ele>340.0</ele><time>2026-04-27T13:17:41.973Z</time></trkpt><trkpt lat="39.52782035949373" lon="8.606814181354775"><ele>340.6666666666667</ele><time>2026-04-27T13:17:49.973Z</time></trkpt><trkpt lat="39.52784259949349" lon="8.606907115018318"><ele>341.3333333333333</ele><time>2026-04-27T13:17:52.973Z</time></trkpt><trkpt lat="39.527863577160055" lon="8.60681932024375"><ele>342.0</ele><time>2026-04-27T13:18:01.973Z</time></trkpt><trkpt lat="39.527818800289" lon="8.60671482012752"><ele>342.0</ele><time>2026-04-27T13:26:07.974Z</time></trkpt><trkpt lat="39.527803959882526" lon="8.606623990379369"><ele>342.0</ele><time>2026-04-27T13:26:20.974Z</time></trkpt><trkpt lat="39.52778097406565" lon="8.606496269895331"><ele>342.0</ele><time>2026-04-27T13:26:23.974Z</time></trkpt><trkpt lat="39.527735715054284" lon="8.606386436595576"><ele>342.0</ele><time>2026-04-27T13:26:24.974Z</time></trkpt><trkpt lat="39.52769317033654" lon="8.606292271475144"><ele>342.0</ele><time>2026-04-27T13:26:25.974Z</time></trkpt><trkpt lat="39.52768692888149" lon="8.606184124589692"><ele>342.0</ele><time>2026-04-27T13:26:26.974Z</time></trkpt><trkpt lat="39.527667253701765" lon="8.606081845147546"><ele>341.20000000000005</ele><time>2026-04-27T13:26:27.974Z</time></trkpt><trkpt lat="39.527638646299515" lon="8.606003924850693"><ele>340.4</ele><time>2026-04-27T13:26:28.974Z</time></trkpt><trkpt lat="39.52762796517377" lon="8.605875855575617"><ele>339.6</ele><time>2026-04-27T13:26:30.974Z</time></trkpt><trkpt lat="39.52760163374201" lon="8.605770021356996"><ele>338.79999999999995</ele><time>2026-04-27T13:26:32.974Z</time></trkpt><trkpt lat="39.527584556450364" lon="8.605665194771893"><ele>338.0</ele><time>2026-04-27T13:26:34.974Z</time></trkpt><trkpt lat="39.52756510513084" lon="8.605510164404407"><ele>338.0</ele><time>2026-04-27T13:26:36.974Z</time></trkpt><trkpt lat="39.527562944582364" lon="8.605411420955104"><ele>338.0</ele><time>2026-04-27T13:26:37.974Z</time></trkpt><trkpt lat="39.5275660218663" lon="8.605310097815131"><ele>338.0</ele><time>2026-04-27T13:26:38.974Z</time></trkpt><trkpt lat="39.527584079596295" lon="8.605200270337122"><ele>338.0</ele><time>2026-04-27T13:26:39.974Z</time></trkpt><trkpt lat="39.52762105225886" lon="8.605101519842151"><ele>338.0</ele><time>2026-04-27T13:26:40.974Z</time></trkpt><trkpt lat="39.52767596526157" lon="8.605009486730294"><ele>338.0</ele><time>2026-04-27T13:26:41.974Z</time></trkpt><trkpt lat="39.52774747853505" lon="8.604916015101814"><ele>338.2</ele><time>2026-04-27T13:26:42.974Z</time></trkpt><trkpt lat="39.527813470813236" lon="8.604829341415257"><ele>338.4</ele><time>2026-04-27T13:26:43.974Z</time></trkpt><trkpt lat="39.5278822085478" lon="8.604738030221549"><ele>338.59999999999997</ele><time>2026-04-27T13:26:44.974Z</time></trkpt><trkpt lat="39.52794922259256" lon="8.60464969947935"><ele>338.79999999999995</ele><time>2026-04-27T13:26:45.974Z</time></trkpt><trkpt lat="39.52801357645091" lon="8.604575641295678"><ele>339.0</ele><time>2026-04-27T13:26:46.974Z</time></trkpt><trkpt lat="39.52807367264576" lon="8.604516194630131"><ele>337.6</ele><time>2026-04-27T13:26:47.974Z</time></trkpt><trkpt lat="39.52816558929156" lon="8.604481907837178"><ele>336.2</ele><time>2026-04-27T13:26:49.974Z</time></trkpt><trkpt lat="39.52825276220215" lon="8.604481603889361"><ele>334.8</ele><time>2026-04-27T13:26:51.974Z</time></trkpt><trkpt lat="39.5283565542046" lon="8.604430271848907"><ele>333.40000000000003</ele><time>2026-04-27T13:26:53.973Z</time></trkpt><trkpt lat="39.52842781159665" lon="8.604371752050406"><ele>332.0</ele><time>2026-04-27T13:26:54.973Z</time></trkpt><trkpt lat="39.52848816076486" lon="8.604296952363171"><ele>332.0</ele><time>2026-04-27T13:26:55.973Z</time></trkpt><trkpt lat="39.52855031964038" lon="8.604191013965753"><ele>332.0</ele><time>2026-04-27T13:26:56.973Z</time></trkpt><trkpt lat="39.52861494859535" lon="8.604064727232375"><ele>332.0</ele><time>2026-04-27T13:26:57.973Z</time></trkpt><trkpt lat="39.52867191118615" lon="8.60395477752387"><ele>332.0</ele><time>2026-04-27T13:26:58.973Z</time></trkpt><trkpt lat="39.528734523485404" lon="8.603833087900377"><ele>332.0</ele><time>2026-04-27T13:26:59.973Z</time></trkpt><trkpt lat="39.52880087692796" lon="8.60370754046991"><ele>335.0</ele><time>2026-04-27T13:27:00.973Z</time></trkpt><trkpt lat="39.52886849371064" lon="8.603576911894162"><ele>338.0</ele><time>2026-04-27T13:27:01.973Z</time></trkpt><trkpt lat="39.528922589026806" lon="8.603456868955911"><ele>341.0</ele><time>2026-04-27T13:27:02.973Z</time></trkpt><trkpt lat="39.528978535883354" lon="8.603348405081258"><ele>344.0</ele><time>2026-04-27T13:27:03.973Z</time></trkpt><trkpt lat="39.529033528530384" lon="8.603244385108598"><ele>347.0</ele><time>2026-04-27T13:27:04.973Z</time></trkpt><trkpt lat="39.529085542395244" lon="8.603138192937603"><ele>347.0</ele><time>2026-04-27T13:27:05.973Z</time></trkpt><trkpt lat="39.52914122967814" lon="8.603032642672618"><ele>347.0</ele><time>2026-04-27T13:27:06.973Z</time></trkpt><trkpt lat="39.529172960675254" lon="8.602916351931002"><ele>347.0</ele><time>2026-04-27T13:27:07.973Z</time></trkpt><trkpt lat="39.52921836965135" lon="8.602811041142505"><ele>347.0</ele><time>2026-04-27T13:27:08.973Z</time></trkpt><trkpt lat="39.52924664001424" lon="8.602678357997302"><ele>347.0</ele><time>2026-04-27T13:27:09.973Z</time></trkpt><trkpt lat="39.52925547059913" lon="8.602539028061237"><ele>346.40000000000003</ele><time>2026-04-27T13:27:10.973Z</time></trkpt><trkpt lat="39.52926550396454" lon="8.602410461926906"><ele>345.8</ele><time>2026-04-27T13:27:11.973Z</time></trkpt><trkpt lat="39.529292248914864" lon="8.602280642908578"><ele>345.2</ele><time>2026-04-27T13:27:12.973Z</time></trkpt><trkpt lat="39.52933445852561" lon="8.602153336438558"><ele>344.6</ele><time>2026-04-27T13:27:13.973Z</time></trkpt><trkpt lat="39.529392857243636" lon="8.602033577501393"><ele>344.0</ele><time>2026-04-27T13:27:14.973Z</time></trkpt><trkpt lat="39.52943992247895" lon="8.60190043898437"><ele>343.2</ele><time>2026-04-27T13:27:15.973Z</time></trkpt><trkpt lat="39.52950317215919" lon="8.601784550334179"><ele>342.4</ele><time>2026-04-27T13:27:16.973Z</time></trkpt><trkpt lat="39.52958016842378" lon="8.601670896628875"><ele>341.6</ele><time>2026-04-27T13:27:17.973Z</time></trkpt><trkpt lat="39.52963773909168" lon="8.601549032752473"><ele>340.8</ele><time>2026-04-27T13:27:18.973Z</time></trkpt><trkpt lat="39.529714146436326" lon="8.601452062273601"><ele>340.0</ele><time>2026-04-27T13:27:19.973Z</time></trkpt><trkpt lat="39.52979112628202" lon="8.601354776087293"><ele>341.6</ele><time>2026-04-27T13:27:20.973Z</time></trkpt><trkpt lat="39.5298674454065" lon="8.601256199599462"><ele>343.2</ele><time>2026-04-27T13:27:21.974Z</time></trkpt><trkpt lat="39.529952855240566" lon="8.601168992259415"><ele>344.79999999999995</ele><time>2026-04-27T13:27:22.974Z</time></trkpt><trkpt lat="39.5300585566758" lon="8.601140106735029"><ele>346.4</ele><time>2026-04-27T13:27:23.974Z</time></trkpt><trkpt lat="39.530154348324196" lon="8.601084040144483"><ele>348.0</ele><time>2026-04-27T13:27:24.974Z</time></trkpt><trkpt lat="39.53025461464588" lon="8.601036833767244"><ele>348.0</ele><time>2026-04-27T13:27:25.974Z</time></trkpt><trkpt lat="39.530370434633326" lon="8.600988255709296"><ele>348.0</ele><time>2026-04-27T13:27:26.974Z</time></trkpt><trkpt lat="39.53049561813014" lon="8.600972416001008"><ele>348.0</ele><time>2026-04-27T13:27:27.974Z</time></trkpt><trkpt lat="39.53063103735766" lon="8.600954188865739"><ele>348.0</ele><time>2026-04-27T13:27:28.974Z</time></trkpt><trkpt lat="39.53078433708648" lon="8.600961789144932"><ele>352.75</ele><time>2026-04-27T13:27:29.974Z</time></trkpt><trkpt lat="39.53092447390471" lon="8.600939369553805"><ele>357.5</ele><time>2026-04-27T13:27:30.974Z</time></trkpt><trkpt lat="39.53107300859558" lon="8.600911785903625"><ele>362.25</ele><time>2026-04-27T13:27:31.974Z</time></trkpt><trkpt lat="39.53121638378767" lon="8.600867188458164"><ele>367.0</ele><time>2026-04-27T13:27:32.974Z</time></trkpt><trkpt lat="39.53135746532633" lon="8.600812773714958"><ele>370.75</ele><time>2026-04-27T13:27:33.974Z</time></trkpt><trkpt lat="39.53150394717459" lon="8.60076070755335"><ele>374.5</ele><time>2026-04-27T13:27:34.974Z</time></trkpt><trkpt lat="39.53164746592997" lon="8.600719265771975"><ele>378.25</ele><time>2026-04-27T13:27:35.974Z</time></trkpt><trkpt lat="39.53178762271327" lon="8.600692094696308"><ele>382.0</ele><time>2026-04-27T13:27:36.974Z</time></trkpt><trkpt lat="39.531928631687705" lon="8.600670469899082"><ele>383.5</ele><time>2026-04-27T13:27:37.974Z</time></trkpt><trkpt lat="39.53206852149194" lon="8.600653797809276"><ele>385.0</ele><time>2026-04-27T13:27:38.974Z</time></trkpt><trkpt lat="39.532198638155826" lon="8.600656985295723"><ele>386.5</ele><time>2026-04-27T13:27:39.974Z</time></trkpt><trkpt lat="39.532322047888194" lon="8.600678153008195"><ele>388.0</ele><time>2026-04-27T13:27:40.974Z</time></trkpt><trkpt lat="39.53244317076557" lon="8.600717474347904"><ele>388.0</ele><time>2026-04-27T13:27:41.974Z</time></trkpt><trkpt lat="39.5325693531003" lon="8.600773356931041"><ele>388.0</ele><time>2026-04-27T13:27:42.974Z</time></trkpt><trkpt lat="39.53270773183297" lon="8.600824045269327"><ele>388.0</ele><time>2026-04-27T13:27:43.974Z</time></trkpt><trkpt lat="39.532849599360354" lon="8.600867082297748"><ele>388.0</ele><time>2026-04-27T13:27:44.974Z</time></trkpt><trkpt lat="39.53298665939416" lon="8.600896508921696"><ele>387.33333333333337</ele><time>2026-04-27T13:27:45.974Z</time></trkpt><trkpt lat="39.53313343870314" lon="8.600936014986544"><ele>386.66666666666663</ele><time>2026-04-27T13:27:46.974Z</time></trkpt><trkpt lat="39.53327945885117" lon="8.600995546860382"><ele>386.0</ele><time>2026-04-27T13:27:47.974Z</time></trkpt><trkpt lat="39.533421782433294" lon="8.601072784224957"><ele>386.0</ele><time>2026-04-27T13:27:48.974Z</time></trkpt><trkpt lat="39.53355760177604" lon="8.601153256636858"><ele>386.0</ele><time>2026-04-27T13:27:49.974Z</time></trkpt><trkpt lat="39.533698823758826" lon="8.601238369491726"><ele>386.0</ele><time>2026-04-27T13:27:50.974Z</time></trkpt><trkpt lat="39.53384704206518" lon="8.601323027899163"><ele>394.0</ele><time>2026-04-27T13:27:51.974Z</time></trkpt><trkpt lat="39.53400129547469" lon="8.601412911798151"><ele>402.0</ele><time>2026-04-27T13:27:52.974Z</time></trkpt><trkpt lat="39.53416036956108" lon="8.601502568444447"><ele>410.0</ele><time>2026-04-27T13:27:53.974Z</time></trkpt><trkpt lat="39.53430717756638" lon="8.601595670141966"><ele>410.0</ele><time>2026-04-27T13:27:54.974Z</time></trkpt><trkpt lat="39.53445302396146" lon="8.601688927896193"><ele>410.0</ele><time>2026-04-27T13:27:55.974Z</time></trkpt><trkpt lat="39.534597964850185" lon="8.601798786434436"><ele>410.0</ele><time>2026-04-27T13:27:56.974Z</time></trkpt><trkpt lat="39.534741887354095" lon="8.60191925239786"><ele>413.0</ele><time>2026-04-27T13:27:57.974Z</time></trkpt><trkpt lat="39.53488166865439" lon="8.602061024875306"><ele>416.0</ele><time>2026-04-27T13:27:58.974Z</time></trkpt><trkpt lat="39.53500864873326" lon="8.602202951212286"><ele>419.0</ele><time>2026-04-27T13:27:59.974Z</time></trkpt><trkpt lat="39.53511508906953" lon="8.602340540055458"><ele>419.0</ele><time>2026-04-27T13:28:00.974Z</time></trkpt><trkpt lat="39.53520883601344" lon="8.602465033464163"><ele>419.0</ele><time>2026-04-27T13:28:01.974Z</time></trkpt><trkpt lat="39.53531611519778" lon="8.602551751208727"><ele>419.0</ele><time>2026-04-27T13:28:02.974Z</time></trkpt><trkpt lat="39.53543973538538" lon="8.602591699063382"><ele>419.0</ele><time>2026-04-27T13:28:03.974Z</time></trkpt><trkpt lat="39.53556801662417" lon="8.602587900348608"><ele>416.25</ele><time>2026-04-27T13:28:04.974Z</time></trkpt><trkpt lat="39.5357014527707" lon="8.602620012674901"><ele>413.5</ele><time>2026-04-27T13:28:05.974Z</time></trkpt><trkpt lat="39.53583052354046" lon="8.602702267316701"><ele>410.75</ele><time>2026-04-27T13:28:06.974Z</time></trkpt><trkpt lat="39.535965522457225" lon="8.602785916272111"><ele>408.0</ele><time>2026-04-27T13:28:07.974Z</time></trkpt><trkpt lat="39.53610817843008" lon="8.602873789550223"><ele>414.5</ele><time>2026-04-27T13:28:08.974Z</time></trkpt><trkpt lat="39.53624279766399" lon="8.602956712358079"><ele>421.0</ele><time>2026-04-27T13:28:09.974Z</time></trkpt><trkpt lat="39.53637413781992" lon="8.603034326545766"><ele>427.5</ele><time>2026-04-27T13:28:10.974Z</time></trkpt><trkpt lat="39.536506516494654" lon="8.60307995355136"><ele>434.0</ele><time>2026-04-27T13:28:11.974Z</time></trkpt><trkpt lat="39.536637778207144" lon="8.60308401850233"><ele>434.0</ele><time>2026-04-27T13:28:12.974Z</time></trkpt><trkpt lat="39.53675943967716" lon="8.603044654916339"><ele>434.0</ele><time>2026-04-27T13:28:13.974Z</time></trkpt><trkpt lat="39.53687281057641" lon="8.6029684246375"><ele>434.0</ele><time>2026-04-27T13:28:14.974Z</time></trkpt><trkpt lat="39.53698282929134" lon="8.602861006745947"><ele>434.0</ele><time>2026-04-27T13:28:15.974Z</time></trkpt><trkpt lat="39.53711855222695" lon="8.602772504606486"><ele>431.0</ele><time>2026-04-27T13:28:16.974Z</time></trkpt><trkpt lat="39.53727087547453" lon="8.60272145315837"><ele>428.0</ele><time>2026-04-27T13:28:17.974Z</time></trkpt><trkpt lat="39.537416302469424" lon="8.602673966443767"><ele>425.0</ele><time>2026-04-27T13:28:18.974Z</time></trkpt><trkpt lat="39.53756850982538" lon="8.602625768886702"><ele>425.0</ele><time>2026-04-27T13:28:19.974Z</time></trkpt><trkpt lat="39.53772249719106" lon="8.602556165579724"><ele>425.0</ele><time>2026-04-27T13:28:20.974Z</time></trkpt><trkpt lat="39.53787669790301" lon="8.602470326917656"><ele>425.0</ele><time>2026-04-27T13:28:21.974Z</time></trkpt><trkpt lat="39.53803663504153" lon="8.602384094423904"><ele>431.3333333333333</ele><time>2026-04-27T13:28:22.974Z</time></trkpt><trkpt lat="39.53819760464818" lon="8.602306919578584"><ele>437.66666666666663</ele><time>2026-04-27T13:28:23.975Z</time></trkpt><trkpt lat="39.53835646896204" lon="8.602223338992887"><ele>444.0</ele><time>2026-04-27T13:28:24.975Z</time></trkpt><trkpt lat="39.538524077576284" lon="8.602205644983394"><ele>444.0</ele><time>2026-04-27T13:28:25.975Z</time></trkpt><trkpt lat="39.538691412076695" lon="8.60220184598011"><ele>444.0</ele><time>2026-04-27T13:28:26.975Z</time></trkpt><trkpt lat="39.538861713687155" lon="8.602182668237987"><ele>444.0</ele><time>2026-04-27T13:28:27.975Z</time></trkpt><trkpt lat="39.53901890856465" lon="8.602154118525853"><ele>447.0</ele><time>2026-04-27T13:28:28.975Z</time></trkpt><trkpt lat="39.53917716770868" lon="8.602124436480642"><ele>450.0</ele><time>2026-04-27T13:28:29.975Z</time></trkpt><trkpt lat="39.539334819431375" lon="8.602073171406627"><ele>453.0</ele><time>2026-04-27T13:28:30.975Z</time></trkpt><trkpt lat="39.539482299245776" lon="8.601986144335314"><ele>446.33333333333337</ele><time>2026-04-27T13:28:31.975Z</time></trkpt><trkpt lat="39.53961953461248" lon="8.601878279712542"><ele>439.6666666666667</ele><time>2026-04-27T13:28:32.975Z</time></trkpt><trkpt lat="39.539781295929124" lon="8.601851197829374"><ele>433.0</ele><time>2026-04-27T13:28:33.975Z</time></trkpt><trkpt lat="39.53994735685846" lon="8.60182730826028"><ele>433.0</ele><time>2026-04-27T13:28:34.975Z</time></trkpt><trkpt lat="39.54012256699317" lon="8.601794687886642"><ele>433.0</ele><time>2026-04-27T13:28:35.975Z</time></trkpt><trkpt lat="39.54028725216121" lon="8.601751869706694"><ele>433.0</ele><time>2026-04-27T13:28:36.975Z</time></trkpt><trkpt lat="39.54045144536356" lon="8.601706494889521"><ele>435.6666666666667</ele><time>2026-04-27T13:28:37.975Z</time></trkpt><trkpt lat="39.540611849822284" lon="8.601674424979525"><ele>438.33333333333337</ele><time>2026-04-27T13:28:38.975Z</time></trkpt><trkpt lat="39.540770727737865" lon="8.601664408930732"><ele>441.0</ele><time>2026-04-27T13:28:39.975Z</time></trkpt><trkpt lat="39.54092720149363" lon="8.601683606020835"><ele>441.0</ele><time>2026-04-27T13:28:40.975Z</time></trkpt><trkpt lat="39.54108683348509" lon="8.6017243162741"><ele>441.0</ele><time>2026-04-27T13:28:41.975Z</time></trkpt><trkpt lat="39.54124778517537" lon="8.601750831502578"><ele>441.0</ele><time>2026-04-27T13:28:42.975Z</time></trkpt><trkpt lat="39.54140670833911" lon="8.601808223757228"><ele>443.0</ele><time>2026-04-27T13:28:43.975Z</time></trkpt><trkpt lat="39.541566275041426" lon="8.601865531424073"><ele>445.0</ele><time>2026-04-27T13:28:44.975Z</time></trkpt><trkpt lat="39.5417259330649" lon="8.601923576258514"><ele>447.0</ele><time>2026-04-27T13:28:45.975Z</time></trkpt><trkpt lat="39.541883531905874" lon="8.60199964443329"><ele>453.0</ele><time>2026-04-27T13:28:46.975Z</time></trkpt><trkpt lat="39.54204602437399" lon="8.60204314746659"><ele>459.0</ele><time>2026-04-27T13:28:47.975Z</time></trkpt><trkpt lat="39.54221330819073" lon="8.602077618370123"><ele>465.0</ele><time>2026-04-27T13:28:48.975Z</time></trkpt><trkpt lat="39.54238390791685" lon="8.602109317696137"><ele>465.33333333333337</ele><time>2026-04-27T13:28:49.975Z</time></trkpt><trkpt lat="39.54255701553134" lon="8.602125594175662"><ele>465.6666666666667</ele><time>2026-04-27T13:28:50.975Z</time></trkpt><trkpt lat="39.54273181415236" lon="8.602124449925427"><ele>466.0</ele><time>2026-04-27T13:28:51.975Z</time></trkpt><trkpt lat="39.542901632126444" lon="8.602102247282088"><ele>465.25</ele><time>2026-04-27T13:28:52.975Z</time></trkpt><trkpt lat="39.5430495070862" lon="8.602081973100523"><ele>464.5</ele><time>2026-04-27T13:28:53.975Z</time></trkpt><trkpt lat="39.54318410462998" lon="8.602055286885122"><ele>463.75</ele><time>2026-04-27T13:28:54.975Z</time></trkpt><trkpt lat="39.5432974532277" lon="8.60200956956826"><ele>463.0</ele><time>2026-04-27T13:28:55.975Z</time></trkpt><trkpt lat="39.54339384727089" lon="8.601935244185501"><ele>463.0</ele><time>2026-04-27T13:28:56.975Z</time></trkpt><trkpt lat="39.54347294085458" lon="8.60183192240455"><ele>463.0</ele><time>2026-04-27T13:28:57.975Z</time></trkpt><trkpt lat="39.54352389864846" lon="8.601685726687986"><ele>463.0</ele><time>2026-04-27T13:28:58.973Z</time></trkpt><trkpt lat="39.543575475195325" lon="8.601539398242952"><ele>463.0</ele><time>2026-04-27T13:28:59.973Z</time></trkpt><trkpt lat="39.54362257706023" lon="8.601402129582148"><ele>463.0</ele><time>2026-04-27T13:29:00.973Z</time></trkpt><trkpt lat="39.543681071584885" lon="8.601303015791162"><ele>462.99999999999994</ele><time>2026-04-27T13:29:01.973Z</time></trkpt><trkpt lat="39.54375159216879" lon="8.601237526951373"><ele>462.99999999999994</ele><time>2026-04-27T13:29:02.973Z</time></trkpt><trkpt lat="39.543838703126774" lon="8.601213881491088"><ele>463.0</ele><time>2026-04-27T13:29:03.973Z</time></trkpt><trkpt lat="39.54393589259078" lon="8.6012241884476"><ele>463.0</ele><time>2026-04-27T13:29:04.973Z</time></trkpt><trkpt lat="39.54404354470484" lon="8.601236136782363"><ele>462.0</ele><time>2026-04-27T13:29:05.973Z</time></trkpt><trkpt lat="39.544150914130405" lon="8.601230746554766"><ele>460.99999999999994</ele><time>2026-04-27T13:29:06.973Z</time></trkpt><trkpt lat="39.54424308999627" lon="8.60120857815631"><ele>459.99999999999994</ele><time>2026-04-27T13:29:07.973Z</time></trkpt><trkpt lat="39.54432995410883" lon="8.60112978215988"><ele>459.0</ele><time>2026-04-27T13:29:08.973Z</time></trkpt><trkpt lat="39.54441142194626" lon="8.601039925193406"><ele>458.0</ele><time>2026-04-27T13:29:09.973Z</time></trkpt><trkpt lat="39.544441541670096" lon="8.600909438037414"><ele>458.0</ele><time>2026-04-27T13:29:10.973Z</time></trkpt><trkpt lat="39.54443809276094" lon="8.600777592354333"><ele>458.0</ele><time>2026-04-27T13:29:11.973Z</time></trkpt><trkpt lat="39.544434366732645" lon="8.600622527765633"><ele>458.0</ele><time>2026-04-27T13:29:12.973Z</time></trkpt><trkpt lat="39.544432386354416" lon="8.600433344532028"><ele>458.0</ele><time>2026-04-27T13:29:13.973Z</time></trkpt><trkpt lat="39.54443035034315" lon="8.60022273932524"><ele>461.3333333333333</ele><time>2026-04-27T13:29:14.973Z</time></trkpt><trkpt lat="39.5444296209576" lon="8.600012917937933"><ele>464.66666666666663</ele><time>2026-04-27T13:29:15.973Z</time></trkpt><trkpt lat="39.54443845811512" lon="8.599797105986458"><ele>468.0</ele><time>2026-04-27T13:29:16.973Z</time></trkpt><trkpt lat="39.544457248350334" lon="8.599584850914503"><ele>469.25</ele><time>2026-04-27T13:29:17.973Z</time></trkpt><trkpt lat="39.544482919695" lon="8.599385474329067"><ele>470.5</ele><time>2026-04-27T13:29:18.973Z</time></trkpt><trkpt lat="39.54451272532453" lon="8.599190952019455"><ele>471.75</ele><time>2026-04-27T13:29:19.973Z</time></trkpt><trkpt lat="39.54454418074184" lon="8.599041391295932"><ele>473.0</ele><time>2026-04-27T13:29:20.973Z</time></trkpt><trkpt lat="39.544585740769854" lon="8.598900457859678"><ele>469.59999999999997</ele><time>2026-04-27T13:29:21.973Z</time></trkpt><trkpt lat="39.54465095978002" lon="8.598781225036173"><ele>466.19999999999993</ele><time>2026-04-27T13:29:22.973Z</time></trkpt><trkpt lat="39.54473498453974" lon="8.598683890071998"><ele>462.8</ele><time>2026-04-27T13:29:23.973Z</time></trkpt><trkpt lat="39.54482876386086" lon="8.598614973037499"><ele>459.4</ele><time>2026-04-27T13:29:24.973Z</time></trkpt><trkpt lat="39.544928551077845" lon="8.59858841682664"><ele>456.0</ele><time>2026-04-27T13:29:25.973Z</time></trkpt><trkpt lat="39.54502578934895" lon="8.598608277334693"><ele>456.0</ele><time>2026-04-27T13:29:26.973Z</time></trkpt><trkpt lat="39.54512098189195" lon="8.598653350121944"><ele>456.0</ele><time>2026-04-27T13:29:27.973Z</time></trkpt><trkpt lat="39.54522144069917" lon="8.598699443402538"><ele>456.0</ele><time>2026-04-27T13:29:28.973Z</time></trkpt><trkpt lat="39.54531424117691" lon="8.598754071303366"><ele>456.0</ele><time>2026-04-27T13:29:29.973Z</time></trkpt><trkpt lat="39.54540965492236" lon="8.59875524730874"><ele>456.0</ele><time>2026-04-27T13:29:30.973Z</time></trkpt><trkpt lat="39.54550070447494" lon="8.59871640349305"><ele>450.8</ele><time>2026-04-27T13:29:31.973Z</time></trkpt><trkpt lat="39.54557674095332" lon="8.598630962857495"><ele>445.6</ele><time>2026-04-27T13:29:32.973Z</time></trkpt><trkpt lat="39.545662306017086" lon="8.598562364006382"><ele>440.4</ele><time>2026-04-27T13:29:33.973Z</time></trkpt><trkpt lat="39.54575370634993" lon="8.598475477867975"><ele>435.2</ele><time>2026-04-27T13:29:34.973Z</time></trkpt><trkpt lat="39.54582374468095" lon="8.598379040753787"><ele>430.0</ele><time>2026-04-27T13:29:35.973Z</time></trkpt><trkpt lat="39.54586864639599" lon="8.598261382575597"><ele>430.0</ele><time>2026-04-27T13:29:36.973Z</time></trkpt><trkpt lat="39.54588439282209" lon="8.598127103431398"><ele>430.0</ele><time>2026-04-27T13:29:37.973Z</time></trkpt><trkpt lat="39.54588375193705" lon="8.597981663640327"><ele>430.0</ele><time>2026-04-27T13:29:38.973Z</time></trkpt><trkpt lat="39.54588428560501" lon="8.597820428935508"><ele>430.0</ele><time>2026-04-27T13:29:39.973Z</time></trkpt><trkpt lat="39.54588529270167" lon="8.597661100620972"><ele>431.8</ele><time>2026-04-27T13:29:40.973Z</time></trkpt><trkpt lat="39.54588622852047" lon="8.597513048692695"><ele>433.6</ele><time>2026-04-27T13:29:41.973Z</time></trkpt><trkpt lat="39.54587632820251" lon="8.59738634184225"><ele>435.4</ele><time>2026-04-27T13:29:42.973Z</time></trkpt><trkpt lat="39.5459189894785" lon="8.597281457453098"><ele>437.2</ele><time>2026-04-27T13:29:43.973Z</time></trkpt><trkpt lat="39.54599129076716" lon="8.597195726473924"><ele>439.0</ele><time>2026-04-27T13:29:44.973Z</time></trkpt><trkpt lat="39.546095892630774" lon="8.59714014209272"><ele>431.5</ele><time>2026-04-27T13:29:45.973Z</time></trkpt><trkpt lat="39.5462132126691" lon="8.59711571029553"><ele>424.0</ele><time>2026-04-27T13:29:46.973Z</time></trkpt><trkpt lat="39.54634140186003" lon="8.59709407773827"><ele>416.5</ele><time>2026-04-27T13:29:47.973Z</time></trkpt><trkpt lat="39.546468119513236" lon="8.597067237650101"><ele>409.0</ele><time>2026-04-27T13:29:48.973Z</time></trkpt><trkpt lat="39.546590344417076" lon="8.5970316773569"><ele>415.5</ele><time>2026-04-27T13:29:49.973Z</time></trkpt><trkpt lat="39.54669492016414" lon="8.596980123954225"><ele>422.0</ele><time>2026-04-27T13:29:50.973Z</time></trkpt><trkpt lat="39.54679727372873" lon="8.596921240492776"><ele>428.5</ele><time>2026-04-27T13:29:51.973Z</time></trkpt><trkpt lat="39.546873815300124" lon="8.596795345864967"><ele>435.0</ele><time>2026-04-27T13:29:52.973Z</time></trkpt><trkpt lat="39.546948400545034" lon="8.596687071464507"><ele>435.0</ele><time>2026-04-27T13:29:53.973Z</time></trkpt><trkpt lat="39.54702005435781" lon="8.596599926556873"><ele>435.0</ele><time>2026-04-27T13:29:54.973Z</time></trkpt><trkpt lat="39.547097400332554" lon="8.596550595042379"><ele>435.0</ele><time>2026-04-27T13:29:55.973Z</time></trkpt><trkpt lat="39.54719077931874" lon="8.596551834495703"><ele>435.0</ele><time>2026-04-27T13:29:56.973Z</time></trkpt><trkpt lat="39.54729866945244" lon="8.596565452394227"><ele>435.0</ele><time>2026-04-27T13:29:57.973Z</time></trkpt><trkpt lat="39.54740570098929" lon="8.596620571415514"><ele>431.2</ele><time>2026-04-27T13:29:58.973Z</time></trkpt><trkpt lat="39.54751070983004" lon="8.596668232138114"><ele>427.4</ele><time>2026-04-27T13:29:59.973Z</time></trkpt><trkpt lat="39.54761060788529" lon="8.596696742808255"><ele>423.6</ele><time>2026-04-27T13:30:00.973Z</time></trkpt><trkpt lat="39.547700470238624" lon="8.596698280516144"><ele>419.8</ele><time>2026-04-27T13:30:01.973Z</time></trkpt><trkpt lat="39.54782306851872" lon="8.596665110582043"><ele>416.0</ele><time>2026-04-27T13:30:02.973Z</time></trkpt><trkpt lat="39.54793215476547" lon="8.596605261145964"><ele>417.0</ele><time>2026-04-27T13:30:03.973Z</time></trkpt><trkpt lat="39.548032229518306" lon="8.596512848198124"><ele>418.0</ele><time>2026-04-27T13:30:04.973Z</time></trkpt><trkpt lat="39.548134250135845" lon="8.596404668736241"><ele>419.0</ele><time>2026-04-27T13:30:05.973Z</time></trkpt><trkpt lat="39.548224951431465" lon="8.596275342108163"><ele>420.0</ele><time>2026-04-27T13:30:06.973Z</time></trkpt><trkpt lat="39.54830463119022" lon="8.596120909676769"><ele>420.0</ele><time>2026-04-27T13:30:07.973Z</time></trkpt><trkpt lat="39.548380211579115" lon="8.595954594297375"><ele>420.0</ele><time>2026-04-27T13:30:08.973Z</time></trkpt><trkpt lat="39.548466581982794" lon="8.595795264182911"><ele>420.0</ele><time>2026-04-27T13:30:09.974Z</time></trkpt><trkpt lat="39.54857610097536" lon="8.595663042250449"><ele>420.0</ele><time>2026-04-27T13:30:10.974Z</time></trkpt><trkpt lat="39.54870273938122" lon="8.59556110759514"><ele>418.25</ele><time>2026-04-27T13:30:11.974Z</time></trkpt><trkpt lat="39.54881111646883" lon="8.595476936852641"><ele>416.5</ele><time>2026-04-27T13:30:12.974Z</time></trkpt><trkpt lat="39.54894643520209" lon="8.59537413138833"><ele>414.75</ele><time>2026-04-27T13:30:13.974Z</time></trkpt><trkpt lat="39.549075183333066" lon="8.595255092403285"><ele>413.0</ele><time>2026-04-27T13:30:14.974Z</time></trkpt><trkpt lat="39.54921250353327" lon="8.595156243347889"><ele>413.0</ele><time>2026-04-27T13:30:15.974Z</time></trkpt><trkpt lat="39.549357787566834" lon="8.59506379175692"><ele>413.0</ele><time>2026-04-27T13:30:16.974Z</time></trkpt><trkpt lat="39.549476403014225" lon="8.59491990611415"><ele>413.0</ele><time>2026-04-27T13:30:17.974Z</time></trkpt><trkpt lat="39.54959655916097" lon="8.594781089801968"><ele>411.66666666666663</ele><time>2026-04-27T13:30:18.974Z</time></trkpt><trkpt lat="39.5497212395989" lon="8.594647015924672"><ele>410.33333333333337</ele><time>2026-04-27T13:30:19.974Z</time></trkpt><trkpt lat="39.549848292614826" lon="8.594517778581586"><ele>409.0</ele><time>2026-04-27T13:30:20.974Z</time></trkpt><trkpt lat="39.54998180924644" lon="8.594392045982229"><ele>409.0</ele><time>2026-04-27T13:30:21.974Z</time></trkpt><trkpt lat="39.5501132928577" lon="8.594274994589483"><ele>409.0</ele><time>2026-04-27T13:30:22.974Z</time></trkpt><trkpt lat="39.55024150113067" lon="8.594163069834702"><ele>409.0</ele><time>2026-04-27T13:30:23.974Z</time></trkpt><trkpt lat="39.550365941221365" lon="8.594052166905092"><ele>404.75</ele><time>2026-04-27T13:30:24.974Z</time></trkpt><trkpt lat="39.5504759870557" lon="8.593936877608215"><ele>400.5</ele><time>2026-04-27T13:30:25.974Z</time></trkpt><trkpt lat="39.55056760385456" lon="8.593812960294102"><ele>396.25</ele><time>2026-04-27T13:30:26.974Z</time></trkpt><trkpt lat="39.55064032283875" lon="8.593684718076535"><ele>392.0</ele><time>2026-04-27T13:30:27.974Z</time></trkpt><trkpt lat="39.550684535956385" lon="8.593543072361532"><ele>392.0</ele><time>2026-04-27T13:30:28.974Z</time></trkpt><trkpt lat="39.55071210200489" lon="8.593389159350757"><ele>392.0</ele><time>2026-04-27T13:30:29.974Z</time></trkpt><trkpt lat="39.55072479657934" lon="8.59322067230266"><ele>392.0</ele><time>2026-04-27T13:30:30.974Z</time></trkpt><trkpt lat="39.55072862506756" lon="8.593033883745711"><ele>392.0</ele><time>2026-04-27T13:30:31.974Z</time></trkpt><trkpt lat="39.550723793173454" lon="8.59283761606863"><ele>392.5</ele><time>2026-04-27T13:30:32.974Z</time></trkpt><trkpt lat="39.5507188893912" lon="8.592645378105969"><ele>393.0</ele><time>2026-04-27T13:30:33.974Z</time></trkpt><trkpt lat="39.550704573492226" lon="8.592459692446235"><ele>393.5</ele><time>2026-04-27T13:30:34.974Z</time></trkpt><trkpt lat="39.55067443702552" lon="8.592278523968375"><ele>394.0</ele><time>2026-04-27T13:30:35.974Z</time></trkpt><trkpt lat="39.55062451411189" lon="8.592104859368304"><ele>390.75</ele><time>2026-04-27T13:30:36.974Z</time></trkpt><trkpt lat="39.55055205408567" lon="8.591941041162967"><ele>387.5</ele><time>2026-04-27T13:30:37.974Z</time></trkpt><trkpt lat="39.55047258417924" lon="8.591784034528237"><ele>384.25</ele><time>2026-04-27T13:30:38.974Z</time></trkpt><trkpt lat="39.550385765460575" lon="8.591631867509781"><ele>381.0</ele><time>2026-04-27T13:30:39.974Z</time></trkpt><trkpt lat="39.550287615482006" lon="8.591485391911112"><ele>385.0</ele><time>2026-04-27T13:30:40.974Z</time></trkpt><trkpt lat="39.55017759310558" lon="8.59134784786463"><ele>389.0</ele><time>2026-04-27T13:30:41.974Z</time></trkpt><trkpt lat="39.55006336490942" lon="8.591220932446896"><ele>393.0</ele><time>2026-04-27T13:30:42.974Z</time></trkpt><trkpt lat="39.54994698286978" lon="8.591094459216134"><ele>393.0</ele><time>2026-04-27T13:30:43.974Z</time></trkpt><trkpt lat="39.549835372471776" lon="8.590978503189808"><ele>393.0</ele><time>2026-04-27T13:30:44.974Z</time></trkpt><trkpt lat="39.54973782672502" lon="8.590866368325726"><ele>393.0</ele><time>2026-04-27T13:30:45.974Z</time></trkpt><trkpt lat="39.54966586636533" lon="8.590755404737589"><ele>393.0</ele><time>2026-04-27T13:30:46.974Z</time></trkpt><trkpt lat="39.54961711969679" lon="8.590629375338168"><ele>393.0</ele><time>2026-04-27T13:30:47.974Z</time></trkpt><trkpt lat="39.54959193508502" lon="8.590484682504183"><ele>393.0</ele><time>2026-04-27T13:30:48.974Z</time></trkpt><trkpt lat="39.549584180472394" lon="8.590327754686614"><ele>393.0</ele><time>2026-04-27T13:30:49.974Z</time></trkpt><trkpt lat="39.54959363721812" lon="8.5901821110244"><ele>393.0</ele><time>2026-04-27T13:30:50.974Z</time></trkpt><trkpt lat="39.54961697810058" lon="8.590050977756814"><ele>392.59999999999997</ele><time>2026-04-27T13:30:51.974Z</time></trkpt><trkpt lat="39.549667587015705" lon="8.589936155358275"><ele>392.2</ele><time>2026-04-27T13:30:52.974Z</time></trkpt><trkpt lat="39.549740004550834" lon="8.589848448009649"><ele>391.8</ele><time>2026-04-27T13:30:53.974Z</time></trkpt><trkpt lat="39.54985303542529" lon="8.589818360808577"><ele>391.4</ele><time>2026-04-27T13:30:54.974Z</time></trkpt><trkpt lat="39.54996371572464" lon="8.589752843554411"><ele>391.0</ele><time>2026-04-27T13:30:55.974Z</time></trkpt><trkpt lat="39.55005142625107" lon="8.589658449382917"><ele>391.0</ele><time>2026-04-27T13:30:56.974Z</time></trkpt><trkpt lat="39.55008642851568" lon="8.589530877051056"><ele>391.0</ele><time>2026-04-27T13:30:57.974Z</time></trkpt><trkpt lat="39.550137039588094" lon="8.589398958854341"><ele>391.0</ele><time>2026-04-27T13:30:58.974Z</time></trkpt><trkpt lat="39.55019923209921" lon="8.58926667561361"><ele>391.0</ele><time>2026-04-27T13:30:59.974Z</time></trkpt><trkpt lat="39.550265465153174" lon="8.589153296267353"><ele>391.0</ele><time>2026-04-27T13:31:00.974Z</time></trkpt><trkpt lat="39.55035871231206" lon="8.589063303303435"><ele>389.75</ele><time>2026-04-27T13:31:01.974Z</time></trkpt><trkpt lat="39.550477277799935" lon="8.589040507940288"><ele>388.5</ele><time>2026-04-27T13:31:02.974Z</time></trkpt><trkpt lat="39.550602779841405" lon="8.589026716420822"><ele>387.25</ele><time>2026-04-27T13:31:03.974Z</time></trkpt><trkpt lat="39.550722575552975" lon="8.588996635940363"><ele>386.0</ele><time>2026-04-27T13:31:04.972Z</time></trkpt><trkpt lat="39.55085394044658" lon="8.588994240709795"><ele>386.0</ele><time>2026-04-27T13:31:05.973Z</time></trkpt><trkpt lat="39.550990375584455" lon="8.58900293038593"><ele>386.0</ele><time>2026-04-27T13:31:06.973Z</time></trkpt><trkpt lat="39.55112491328342" lon="8.588975412139092"><ele>386.0</ele><time>2026-04-27T13:31:07.973Z</time></trkpt><trkpt lat="39.55123852422425" lon="8.588901952007216"><ele>386.0</ele><time>2026-04-27T13:31:08.972Z</time></trkpt><trkpt lat="39.55134876098542" lon="8.588852913679345"><ele>384.8</ele><time>2026-04-27T13:31:09.972Z</time></trkpt><trkpt lat="39.55142644493526" lon="8.588750803918225"><ele>383.6</ele><time>2026-04-27T13:31:10.973Z</time></trkpt><trkpt lat="39.5514906214504" lon="8.588641102586193"><ele>382.4</ele><time>2026-04-27T13:31:11.973Z</time></trkpt><trkpt lat="39.55153357371823" lon="8.588511887986998"><ele>381.2</ele><time>2026-04-27T13:31:12.973Z</time></trkpt><trkpt lat="39.551554032447896" lon="8.588374782161857"><ele>380.0</ele><time>2026-04-27T13:31:13.973Z</time></trkpt><trkpt lat="39.55155443254797" lon="8.58823261913572"><ele>380.0</ele><time>2026-04-27T13:31:14.973Z</time></trkpt><trkpt lat="39.55153601123092" lon="8.588098439437365"><ele>380.0</ele><time>2026-04-27T13:31:15.973Z</time></trkpt><trkpt lat="39.55151427102552" lon="8.58797100904701"><ele>380.0</ele><time>2026-04-27T13:31:16.973Z</time></trkpt><trkpt lat="39.55142972577303" lon="8.587867107349126"><ele>380.0</ele><time>2026-04-27T13:31:17.972Z</time></trkpt><trkpt lat="39.551337048612915" lon="8.587757282296792"><ele>380.0</ele><time>2026-04-27T13:31:18.972Z</time></trkpt><trkpt lat="39.551239183429956" lon="8.58765723962041"><ele>387.5</ele><time>2026-04-27T13:31:19.973Z</time></trkpt><trkpt lat="39.55113023949212" lon="8.587560654172517"><ele>395.0</ele><time>2026-04-27T13:31:20.973Z</time></trkpt><trkpt lat="39.55103228488895" lon="8.587460237411085"><ele>402.5</ele><time>2026-04-27T13:31:21.973Z</time></trkpt><trkpt lat="39.5509441634755" lon="8.587356343352702"><ele>410.0</ele><time>2026-04-27T13:31:22.973Z</time></trkpt><trkpt lat="39.55087249674483" lon="8.587249434980302"><ele>410.0</ele><time>2026-04-27T13:31:23.973Z</time></trkpt><trkpt lat="39.55082328390706" lon="8.587134712550576"><ele>410.0</ele><time>2026-04-27T13:31:24.973Z</time></trkpt><trkpt lat="39.55079581166186" lon="8.587008982596009"><ele>410.0</ele><time>2026-04-27T13:31:25.973Z</time></trkpt><trkpt lat="39.55083495797439" lon="8.586894992772649"><ele>410.0</ele><time>2026-04-27T13:31:26.973Z</time></trkpt><trkpt lat="39.550901147141246" lon="8.586816442475865"><ele>410.0</ele><time>2026-04-27T13:31:27.973Z</time></trkpt><trkpt lat="39.55097798876482" lon="8.586744855048423"><ele>408.5</ele><time>2026-04-27T13:31:28.973Z</time></trkpt><trkpt lat="39.551065649350626" lon="8.586642260894918"><ele>407.0</ele><time>2026-04-27T13:31:29.973Z</time></trkpt><trkpt lat="39.5511376604553" lon="8.58650825001829"><ele>405.5</ele><time>2026-04-27T13:31:30.973Z</time></trkpt><trkpt lat="39.551184566366125" lon="8.586348672943632"><ele>404.0</ele><time>2026-04-27T13:31:31.973Z</time></trkpt><trkpt lat="39.5512215841195" lon="8.586189112711164"><ele>396.0</ele><time>2026-04-27T13:31:32.973Z</time></trkpt><trkpt lat="39.55123921244842" lon="8.586007497399063"><ele>388.0</ele><time>2026-04-27T13:31:33.973Z</time></trkpt><trkpt lat="39.55126888792064" lon="8.585813183984486"><ele>380.0</ele><time>2026-04-27T13:31:34.973Z</time></trkpt><trkpt lat="39.551287281277965" lon="8.585619544370788"><ele>372.0</ele><time>2026-04-27T13:31:35.973Z</time></trkpt><trkpt lat="39.55129655771056" lon="8.585419185438745"><ele>372.3333333333333</ele><time>2026-04-27T13:31:36.973Z</time></trkpt><trkpt lat="39.55130053692108" lon="8.58522065473113"><ele>372.66666666666663</ele><time>2026-04-27T13:31:37.973Z</time></trkpt><trkpt lat="39.55130333854367" lon="8.58502576939041"><ele>373.0</ele><time>2026-04-27T13:31:38.973Z</time></trkpt><trkpt lat="39.55127198472458" lon="8.58482792765708"><ele>379.0</ele><time>2026-04-27T13:31:39.973Z</time></trkpt><trkpt lat="39.55120345230132" lon="8.584658189800619"><ele>385.0</ele><time>2026-04-27T13:31:40.973Z</time></trkpt><trkpt lat="39.551137835754886" lon="8.584488848577822"><ele>391.0</ele><time>2026-04-27T13:31:41.973Z</time></trkpt><trkpt lat="39.55106229943629" lon="8.584332142330727"><ele>397.0</ele><time>2026-04-27T13:31:42.973Z</time></trkpt><trkpt lat="39.550971867709755" lon="8.584171290785944"><ele>397.0</ele><time>2026-04-27T13:31:43.973Z</time></trkpt><trkpt lat="39.55084702833121" lon="8.584052498238538"><ele>397.0</ele><time>2026-04-27T13:31:44.973Z</time></trkpt><trkpt lat="39.55073725371194" lon="8.583937999237715"><ele>397.0</ele><time>2026-04-27T13:31:45.973Z</time></trkpt><trkpt lat="39.55065257452322" lon="8.583827868525722"><ele>397.0</ele><time>2026-04-27T13:31:46.973Z</time></trkpt><trkpt lat="39.55058965220682" lon="8.583708966515465"><ele>395.40000000000003</ele><time>2026-04-27T13:31:47.973Z</time></trkpt><trkpt lat="39.550550126114835" lon="8.583582402627975"><ele>393.8</ele><time>2026-04-27T13:31:48.973Z</time></trkpt><trkpt lat="39.5505308488026" lon="8.583443806948338"><ele>392.2</ele><time>2026-04-27T13:31:49.973Z</time></trkpt><trkpt lat="39.55053797667233" lon="8.583316139862482"><ele>390.6</ele><time>2026-04-27T13:31:50.973Z</time></trkpt><trkpt lat="39.55056062898841" lon="8.583206845934365"><ele>389.0</ele><time>2026-04-27T13:31:51.973Z</time></trkpt><trkpt lat="39.55060836240183" lon="8.583114619328551"><ele>389.0</ele><time>2026-04-27T13:31:52.973Z</time></trkpt><trkpt lat="39.55068397836187" lon="8.583054303670558"><ele>389.0</ele><time>2026-04-27T13:31:53.973Z</time></trkpt><trkpt lat="39.55077580193634" lon="8.583045624961365"><ele>389.0</ele><time>2026-04-27T13:31:54.973Z</time></trkpt><trkpt lat="39.55087444846212" lon="8.58305132294219"><ele>389.0</ele><time>2026-04-27T13:31:55.973Z</time></trkpt><trkpt lat="39.550992761271296" lon="8.58306025201549"><ele>389.0</ele><time>2026-04-27T13:31:56.973Z</time></trkpt><trkpt lat="39.551131862051406" lon="8.583075821879808"><ele>385.3333333333333</ele><time>2026-04-27T13:31:57.973Z</time></trkpt><trkpt lat="39.551280783548506" lon="8.583091402313116"><ele>381.66666666666663</ele><time>2026-04-27T13:31:58.973Z</time></trkpt><trkpt lat="39.55143692798002" lon="8.583099764507358"><ele>378.0</ele><time>2026-04-27T13:31:59.973Z</time></trkpt><trkpt lat="39.55159503869601" lon="8.583094451855215"><ele>378.0</ele><time>2026-04-27T13:32:00.973Z</time></trkpt><trkpt lat="39.551753582397936" lon="8.583097070977011"><ele>378.0</ele><time>2026-04-27T13:32:01.973Z</time></trkpt><trkpt lat="39.55190637191143" lon="8.58311612577035"><ele>378.0</ele><time>2026-04-27T13:32:02.973Z</time></trkpt><trkpt lat="39.55204991658281" lon="8.583139408279573"><ele>376.0</ele><time>2026-04-27T13:32:03.973Z</time></trkpt><trkpt lat="39.552188439648155" lon="8.583163133791007"><ele>374.0</ele><time>2026-04-27T13:32:04.973Z</time></trkpt><trkpt lat="39.5523257107353" lon="8.583115167173146"><ele>372.0</ele><time>2026-04-27T13:32:05.973Z</time></trkpt><trkpt lat="39.55246437817111" lon="8.583071713405635"><ele>370.0</ele><time>2026-04-27T13:32:06.973Z</time></trkpt><trkpt lat="39.55259717452802" lon="8.58302421257448"><ele>370.0</ele><time>2026-04-27T13:32:07.973Z</time></trkpt><trkpt lat="39.55272052300944" lon="8.582973166685386"><ele>370.0</ele><time>2026-04-27T13:32:08.973Z</time></trkpt><trkpt lat="39.55283064606235" lon="8.58290811448017"><ele>370.0</ele><time>2026-04-27T13:32:09.973Z</time></trkpt><trkpt lat="39.552916879964656" lon="8.582827907958672"><ele>370.0</ele><time>2026-04-27T13:32:10.973Z</time></trkpt><trkpt lat="39.552972758062346" lon="8.582720072385367"><ele>369.25</ele><time>2026-04-27T13:32:11.973Z</time></trkpt><trkpt lat="39.553004775804915" lon="8.582593742274796"><ele>368.5</ele><time>2026-04-27T13:32:12.973Z</time></trkpt><trkpt lat="39.55300385016972" lon="8.582450084750095"><ele>367.75</ele><time>2026-04-27T13:32:13.973Z</time></trkpt><trkpt lat="39.55297317402713" lon="8.582284784959612"><ele>367.0</ele><time>2026-04-27T13:32:14.973Z</time></trkpt><trkpt lat="39.55293204448894" lon="8.582108162804563"><ele>366.0</ele><time>2026-04-27T13:32:15.973Z</time></trkpt><trkpt lat="39.552900069911516" lon="8.581930880592138"><ele>365.0</ele><time>2026-04-27T13:32:16.973Z</time></trkpt><trkpt lat="39.552879762994266" lon="8.581745268121093"><ele>364.0</ele><time>2026-04-27T13:32:17.973Z</time></trkpt><trkpt lat="39.55285691214066" lon="8.581555963073566"><ele>363.0</ele><time>2026-04-27T13:32:18.973Z</time></trkpt><trkpt lat="39.55286077066469" lon="8.581355643427464"><ele>362.6666666666667</ele><time>2026-04-27T13:32:19.973Z</time></trkpt><trkpt lat="39.55288592757827" lon="8.581153484241915"><ele>362.33333333333337</ele><time>2026-04-27T13:32:20.973Z</time></trkpt><trkpt lat="39.552916784869424" lon="8.580948056241288"><ele>362.0</ele><time>2026-04-27T13:32:21.974Z</time></trkpt><trkpt lat="39.55295080795046" lon="8.580744989278466"><ele>362.0</ele><time>2026-04-27T13:32:22.974Z</time></trkpt><trkpt lat="39.553001907235625" lon="8.580551879592177"><ele>362.0</ele><time>2026-04-27T13:32:23.974Z</time></trkpt><trkpt lat="39.55301862371318" lon="8.580373678570032"><ele>362.0</ele><time>2026-04-27T13:32:24.974Z</time></trkpt><trkpt lat="39.55301234047423" lon="8.580228832357305"><ele>362.0</ele><time>2026-04-27T13:32:25.974Z</time></trkpt><trkpt lat="39.552983300287416" lon="8.580090432917892"><ele>361.25</ele><time>2026-04-27T13:32:26.974Z</time></trkpt><trkpt lat="39.55292502598855" lon="8.579968017310525"><ele>360.5</ele><time>2026-04-27T13:32:27.974Z</time></trkpt><trkpt lat="39.55284790872386" lon="8.57985052395455"><ele>359.75</ele><time>2026-04-27T13:32:28.974Z</time></trkpt><trkpt lat="39.55275613426273" lon="8.579732054054434"><ele>359.0</ele><time>2026-04-27T13:32:29.974Z</time></trkpt><trkpt lat="39.55264544857196" lon="8.579627450013598"><ele>361.6666666666667</ele><time>2026-04-27T13:32:30.974Z</time></trkpt><trkpt lat="39.552537705179496" lon="8.579493244976941"><ele>364.3333333333333</ele><time>2026-04-27T13:32:31.974Z</time></trkpt><trkpt lat="39.55242680500914" lon="8.579362250376533"><ele>367.0</ele><time>2026-04-27T13:32:32.973Z</time></trkpt><trkpt lat="39.552307102699956" lon="8.57921724232738"><ele>367.0</ele><time>2026-04-27T13:32:33.973Z</time></trkpt><trkpt lat="39.55219997935713" lon="8.579066383617812"><ele>367.0</ele><time>2026-04-27T13:32:34.973Z</time></trkpt><trkpt lat="39.55210149162622" lon="8.578907931633854"><ele>367.0</ele><time>2026-04-27T13:32:35.973Z</time></trkpt><trkpt lat="39.55201861011107" lon="8.578754636090268"><ele>370.8</ele><time>2026-04-27T13:32:36.973Z</time></trkpt><trkpt lat="39.55194797977363" lon="8.578613191255966"><ele>374.6</ele><time>2026-04-27T13:32:37.973Z</time></trkpt><trkpt lat="39.55189214476125" lon="8.578482557929096"><ele>378.40000000000003</ele><time>2026-04-27T13:32:38.973Z</time></trkpt><trkpt lat="39.55185901258926" lon="8.578368192925298"><ele>382.20000000000005</ele><time>2026-04-27T13:32:39.973Z</time></trkpt><trkpt lat="39.55185641849909" lon="8.578261371816053"><ele>386.0</ele><time>2026-04-27T13:32:40.973Z</time></trkpt><trkpt lat="39.55188073185032" lon="8.578157655569196"><ele>386.0</ele><time>2026-04-27T13:32:41.973Z</time></trkpt><trkpt lat="39.55194577129258" lon="8.578067762022467"><ele>386.0</ele><time>2026-04-27T13:32:42.973Z</time></trkpt><trkpt lat="39.55203830701422" lon="8.5779928421521"><ele>386.0</ele><time>2026-04-27T13:32:43.973Z</time></trkpt><trkpt lat="39.55214933825422" lon="8.577932470839169"><ele>386.0</ele><time>2026-04-27T13:32:44.973Z</time></trkpt><trkpt lat="39.5522842272074" lon="8.577895508434555"><ele>385.75</ele><time>2026-04-27T13:32:45.973Z</time></trkpt><trkpt lat="39.55242720595735" lon="8.577864328659874"><ele>385.5</ele><time>2026-04-27T13:32:46.973Z</time></trkpt><trkpt lat="39.55257403861973" lon="8.57782865593222"><ele>385.25</ele><time>2026-04-27T13:32:47.973Z</time></trkpt><trkpt lat="39.552712611956466" lon="8.577793112318748"><ele>385.0</ele><time>2026-04-27T13:32:48.973Z</time></trkpt><trkpt lat="39.55283709241575" lon="8.577750694044592"><ele>379.0</ele><time>2026-04-27T13:32:49.973Z</time></trkpt><trkpt lat="39.55294510437166" lon="8.577692484271498"><ele>373.0</ele><time>2026-04-27T13:32:50.973Z</time></trkpt><trkpt lat="39.55304273526673" lon="8.57763054219236"><ele>367.0</ele><time>2026-04-27T13:32:51.973Z</time></trkpt><trkpt lat="39.55309002566938" lon="8.577525231150563"><ele>361.0</ele><time>2026-04-27T13:32:52.973Z</time></trkpt><trkpt lat="39.55311920499716" lon="8.577420792629031"><ele>355.0</ele><time>2026-04-27T13:32:53.973Z</time></trkpt><trkpt lat="39.55312820809143" lon="8.577291763555932"><ele>355.0</ele><time>2026-04-27T13:32:54.973Z</time></trkpt><trkpt lat="39.55312223352754" lon="8.577143096116835"><ele>355.0</ele><time>2026-04-27T13:32:55.973Z</time></trkpt><trkpt lat="39.55310401084894" lon="8.576975452177646"><ele>355.0</ele><time>2026-04-27T13:32:56.973Z</time></trkpt><trkpt lat="39.55307447366535" lon="8.576790019265667"><ele>355.0</ele><time>2026-04-27T13:32:57.973Z</time></trkpt><trkpt lat="39.55303454991404" lon="8.576598134365431"><ele>353.66666666666663</ele><time>2026-04-27T13:32:58.973Z</time></trkpt><trkpt lat="39.55299885707437" lon="8.576399757639402"><ele>352.3333333333333</ele><time>2026-04-27T13:32:59.973Z</time></trkpt><trkpt lat="39.55295338835515" lon="8.576193849434933"><ele>351.0</ele><time>2026-04-27T13:33:00.973Z</time></trkpt><trkpt lat="39.55291177081497" lon="8.575990699331118"><ele>350.5</ele><time>2026-04-27T13:33:01.973Z</time></trkpt><trkpt lat="39.552872863929636" lon="8.575801451815781"><ele>350.0</ele><time>2026-04-27T13:33:02.973Z</time></trkpt><trkpt lat="39.55283778204042" lon="8.575639116245151"><ele>349.5</ele><time>2026-04-27T13:33:03.973Z</time></trkpt><trkpt lat="39.55281898581577" lon="8.575505527820686"><ele>349.0</ele><time>2026-04-27T13:33:04.973Z</time></trkpt><trkpt lat="39.55283127709643" lon="8.575386124908032"><ele>353.2</ele><time>2026-04-27T13:33:05.973Z</time></trkpt><trkpt lat="39.55288222907322" lon="8.575276306017585"><ele>357.4</ele><time>2026-04-27T13:33:06.973Z</time></trkpt><trkpt lat="39.552958766860066" lon="8.575186676824558"><ele>361.6</ele><time>2026-04-27T13:33:07.973Z</time></trkpt><trkpt lat="39.55305122196281" lon="8.575111470234654"><ele>365.8</ele><time>2026-04-27T13:33:08.973Z</time></trkpt><trkpt lat="39.55315591118696" lon="8.57505501342792"><ele>370.0</ele><time>2026-04-27T13:33:09.973Z</time></trkpt><trkpt lat="39.553266962599956" lon="8.57501757107059"><ele>370.0</ele><time>2026-04-27T13:33:10.972Z</time></trkpt><trkpt lat="39.55337794900973" lon="8.575023486055857"><ele>370.0</ele><time>2026-04-27T13:33:11.972Z</time></trkpt><trkpt lat="39.55349383688145" lon="8.575052827674046"><ele>370.0</ele><time>2026-04-27T13:33:12.972Z</time></trkpt><trkpt lat="39.55360996490679" lon="8.57511163610418"><ele>370.0</ele><time>2026-04-27T13:33:13.972Z</time></trkpt><trkpt lat="39.55372205802165" lon="8.575174626654503"><ele>369.0</ele><time>2026-04-27T13:33:14.971Z</time></trkpt><trkpt lat="39.55382665436252" lon="8.575227073739752"><ele>368.0</ele><time>2026-04-27T13:33:15.971Z</time></trkpt><trkpt lat="39.55391201859069" lon="8.57527646395272"><ele>367.0</ele><time>2026-04-27T13:33:16.972Z</time></trkpt><trkpt lat="39.55400326822667" lon="8.575259957666947"><ele>366.0</ele><time>2026-04-27T13:33:17.972Z</time></trkpt><trkpt lat="39.55407796171554" lon="8.57518708525276"><ele>365.0</ele><time>2026-04-27T13:33:18.972Z</time></trkpt><trkpt lat="39.55415861486701" lon="8.575109627883156"><ele>365.0</ele><time>2026-04-27T13:33:19.972Z</time></trkpt><trkpt lat="39.55424458015816" lon="8.57501140857629"><ele>365.0</ele><time>2026-04-27T13:33:20.971Z</time></trkpt><trkpt lat="39.55433782805331" lon="8.57491665013976"><ele>365.0</ele><time>2026-04-27T13:33:21.971Z</time></trkpt><trkpt lat="39.55444741668265" lon="8.574841974894118"><ele>365.0</ele><time>2026-04-27T13:33:22.971Z</time></trkpt><trkpt lat="39.55456839472395" lon="8.57480148493479"><ele>362.5</ele><time>2026-04-27T13:33:23.972Z</time></trkpt><trkpt lat="39.55468741261305" lon="8.574798440509227"><ele>360.0</ele><time>2026-04-27T13:33:24.972Z</time></trkpt><trkpt lat="39.55481005110103" lon="8.574828289868769"><ele>357.5</ele><time>2026-04-27T13:33:25.972Z</time></trkpt><trkpt lat="39.554922687374905" lon="8.574871694831197"><ele>355.0</ele><time>2026-04-27T13:33:26.972Z</time></trkpt><trkpt lat="39.555018629063994" lon="8.574927058368038"><ele>355.0</ele><time>2026-04-27T13:33:27.972Z</time></trkpt><trkpt lat="39.555119067337" lon="8.574936368134544"><ele>355.0</ele><time>2026-04-27T13:33:28.972Z</time></trkpt><trkpt lat="39.555215601489294" lon="8.574865989924215"><ele>355.0</ele><time>2026-04-27T13:33:29.972Z</time></trkpt><trkpt lat="39.55530537446839" lon="8.574793162748316"><ele>355.0</ele><time>2026-04-27T13:33:30.972Z</time></trkpt><trkpt lat="39.55538735022611" lon="8.574693100205947"><ele>355.0</ele><time>2026-04-27T13:33:31.972Z</time></trkpt><trkpt lat="39.55545184898938" lon="8.574573432585174"><ele>354.75</ele><time>2026-04-27T13:33:32.972Z</time></trkpt><trkpt lat="39.555493637225545" lon="8.574436873769441"><ele>354.5</ele><time>2026-04-27T13:33:33.972Z</time></trkpt><trkpt lat="39.555518186808165" lon="8.57428715503553"><ele>354.25</ele><time>2026-04-27T13:33:34.972Z</time></trkpt><trkpt lat="39.555532231993226" lon="8.574126542760755"><ele>354.0</ele><time>2026-04-27T13:33:35.972Z</time></trkpt><trkpt lat="39.555557874140085" lon="8.573969415884383"><ele>354.0</ele><time>2026-04-27T13:33:36.972Z</time></trkpt><trkpt lat="39.55561089556456" lon="8.57381616899493"><ele>354.0</ele><time>2026-04-27T13:33:37.972Z</time></trkpt><trkpt lat="39.55568320075868" lon="8.573665129837035"><ele>354.0</ele><time>2026-04-27T13:33:38.972Z</time></trkpt><trkpt lat="39.55576294974242" lon="8.57351754236386"><ele>354.0</ele><time>2026-04-27T13:33:39.972Z</time></trkpt><trkpt lat="39.555840284705404" lon="8.57336596438957"><ele>356.0</ele><time>2026-04-27T13:33:40.972Z</time></trkpt><trkpt lat="39.5559029513086" lon="8.573210258233827"><ele>358.0</ele><time>2026-04-27T13:33:41.972Z</time></trkpt><trkpt lat="39.55594878798371" lon="8.573042285478529"><ele>360.0</ele><time>2026-04-27T13:33:42.972Z</time></trkpt><trkpt lat="39.55598204494375" lon="8.572858680513145"><ele>362.0</ele><time>2026-04-27T13:33:43.972Z</time></trkpt><trkpt lat="39.5560107136762" lon="8.572676065266679"><ele>363.5</ele><time>2026-04-27T13:33:44.972Z</time></trkpt><trkpt lat="39.55603391868516" lon="8.57249275091913"><ele>365.0</ele><time>2026-04-27T13:33:45.972Z</time></trkpt><trkpt lat="39.556054928178405" lon="8.572327798947997"><ele>366.5</ele><time>2026-04-27T13:33:46.972Z</time></trkpt><trkpt lat="39.556073576227746" lon="8.572176229355225"><ele>368.0</ele><time>2026-04-27T13:33:47.972Z</time></trkpt><trkpt lat="39.55608494486783" lon="8.572043813472382"><ele>369.0</ele><time>2026-04-27T13:33:48.972Z</time></trkpt><trkpt lat="39.55609357470856" lon="8.571926036506538"><ele>370.0</ele><time>2026-04-27T13:33:49.972Z</time></trkpt><trkpt lat="39.55610883536545" lon="8.571803223320295"><ele>371.0</ele><time>2026-04-27T13:33:50.972Z</time></trkpt><trkpt lat="39.55614535940956" lon="8.571680528702213"><ele>372.0</ele><time>2026-04-27T13:33:51.972Z</time></trkpt><trkpt lat="39.55619810339162" lon="8.571571810273674"><ele>373.0</ele><time>2026-04-27T13:33:52.972Z</time></trkpt><trkpt lat="39.556249400347355" lon="8.571449613881938"><ele>370.59999999999997</ele><time>2026-04-27T13:33:53.972Z</time></trkpt><trkpt lat="39.55632273905784" lon="8.571344518052433"><ele>368.2</ele><time>2026-04-27T13:33:54.972Z</time></trkpt><trkpt lat="39.556386291121036" lon="8.571256326740103"><ele>365.8</ele><time>2026-04-27T13:33:55.972Z</time></trkpt><trkpt lat="39.556460977006225" lon="8.571208150970312"><ele>363.4</ele><time>2026-04-27T13:33:56.972Z</time></trkpt><trkpt lat="39.55654633444672" lon="8.57121590644841"><ele>361.0</ele><time>2026-04-27T13:33:57.972Z</time></trkpt><trkpt lat="39.55663687189762" lon="8.571242798075609"><ele>361.0</ele><time>2026-04-27T13:33:58.972Z</time></trkpt><trkpt lat="39.556701725432674" lon="8.571301186428819"><ele>361.0</ele><time>2026-04-27T13:33:59.972Z</time></trkpt><trkpt lat="39.55676614768147" lon="8.571367195685845"><ele>361.0</ele><time>2026-04-27T13:34:00.972Z</time></trkpt><trkpt lat="39.556860020185105" lon="8.571395846761467"><ele>361.0</ele><time>2026-04-27T13:34:01.972Z</time></trkpt><trkpt lat="39.55695646993052" lon="8.571371986932293"><ele>361.0</ele><time>2026-04-27T13:34:02.972Z</time></trkpt><trkpt lat="39.55704180933042" lon="8.571297859968764"><ele>362.6</ele><time>2026-04-27T13:34:03.972Z</time></trkpt><trkpt lat="39.55710582409044" lon="8.571205444037771"><ele>364.20000000000005</ele><time>2026-04-27T13:34:04.972Z</time></trkpt><trkpt lat="39.55714800181903" lon="8.571089632822543"><ele>365.79999999999995</ele><time>2026-04-27T13:34:05.972Z</time></trkpt><trkpt lat="39.557146335801434" lon="8.57095150731413"><ele>367.4</ele><time>2026-04-27T13:34:06.972Z</time></trkpt><trkpt lat="39.557148545186564" lon="8.570831423261563"><ele>369.0</ele><time>2026-04-27T13:34:07.972Z</time></trkpt><trkpt lat="39.55715276475519" lon="8.570700994957209"><ele>369.0</ele><time>2026-04-27T13:34:08.972Z</time></trkpt><trkpt lat="39.55714945444912" lon="8.570579783897733"><ele>369.0</ele><time>2026-04-27T13:34:09.973Z</time></trkpt><trkpt lat="39.557156141076064" lon="8.570488988072604"><ele>369.0</ele><time>2026-04-27T13:34:10.973Z</time></trkpt><trkpt lat="39.557157571918424" lon="8.570385854709524"><ele>369.0</ele><time>2026-04-27T13:34:12.973Z</time></trkpt><trkpt lat="39.5570910669917" lon="8.570317968091656"><ele>369.0</ele><time>2026-04-27T13:34:15.973Z</time></trkpt><trkpt lat="39.55700938417596" lon="8.570176405007757"><ele>369.6666666666667</ele><time>2026-04-27T13:34:18.973Z</time></trkpt><trkpt lat="39.5569663717196" lon="8.570115047482206"><ele>370.3333333333333</ele><time>2026-04-27T13:34:19.973Z</time></trkpt><trkpt lat="39.5569122429995" lon="8.57004665664672"><ele>371.0</ele><time>2026-04-27T13:34:20.973Z</time></trkpt><trkpt lat="39.55684323481977" lon="8.569977024930242"><ele>371.66666666666663</ele><time>2026-04-27T13:34:21.973Z</time></trkpt><trkpt lat="39.55677637980617" lon="8.569888057530402"><ele>372.3333333333333</ele><time>2026-04-27T13:34:22.973Z</time></trkpt><trkpt lat="39.55671339620485" lon="8.569787867823477"><ele>373.0</ele><time>2026-04-27T13:34:23.973Z</time></trkpt><trkpt lat="39.556652419432815" lon="8.569674785534508"><ele>373.0</ele><time>2026-04-27T13:34:24.973Z</time></trkpt><trkpt lat="39.55658727450367" lon="8.569555867273248"><ele>373.0</ele><time>2026-04-27T13:34:25.973Z</time></trkpt><trkpt lat="39.55652485842613" lon="8.569440732859766"><ele>373.0</ele><time>2026-04-27T13:34:26.973Z</time></trkpt><trkpt lat="39.55646555353226" lon="8.569323236793073"><ele>373.0</ele><time>2026-04-27T13:34:27.973Z</time></trkpt><trkpt lat="39.5564011792274" lon="8.569200170329603"><ele>373.0</ele><time>2026-04-27T13:34:28.973Z</time></trkpt><trkpt lat="39.55634749907585" lon="8.569093861940372"><ele>373.4</ele><time>2026-04-27T13:34:29.973Z</time></trkpt><trkpt lat="39.55630422494832" lon="8.568997609051719"><ele>373.79999999999995</ele><time>2026-04-27T13:34:30.973Z</time></trkpt><trkpt lat="39.55625260736492" lon="8.568896130478835"><ele>374.2</ele><time>2026-04-27T13:34:32.973Z</time></trkpt><trkpt lat="39.55619008402243" lon="8.568805620879415"><ele>374.6</ele><time>2026-04-27T13:34:34.973Z</time></trkpt><trkpt lat="39.55608598984815" lon="8.568731394138505"><ele>375.0</ele><time>2026-04-27T13:34:36.973Z</time></trkpt><trkpt lat="39.5560181024981" lon="8.568729197417817"><ele>375.0</ele><time>2026-04-27T13:34:37.973Z</time></trkpt><trkpt lat="39.55593846115577" lon="8.56876652309002"><ele>375.0</ele><time>2026-04-27T13:34:38.973Z</time></trkpt><trkpt lat="39.555875004405" lon="8.568850153000733"><ele>375.0</ele><time>2026-04-27T13:34:39.973Z</time></trkpt><trkpt lat="39.55584491280309" lon="8.568965132242589"><ele>375.0</ele><time>2026-04-27T13:34:40.973Z</time></trkpt><trkpt lat="39.55581350489815" lon="8.569068899494042"><ele>375.0</ele><time>2026-04-27T13:34:41.973Z</time></trkpt><trkpt lat="39.555783078163344" lon="8.569198289995315"><ele>375.0</ele><time>2026-04-27T13:34:42.973Z</time></trkpt><trkpt lat="39.555750165887495" lon="8.569323963701116"><ele>375.0</ele><time>2026-04-27T13:34:43.973Z</time></trkpt><trkpt lat="39.55570788340418" lon="8.569457428759849"><ele>375.0</ele><time>2026-04-27T13:34:44.973Z</time></trkpt><trkpt lat="39.55563674582215" lon="8.569527574590749"><ele>375.0</ele><time>2026-04-27T13:34:45.973Z</time></trkpt><trkpt lat="39.55556547595842" lon="8.569608919777533"><ele>375.0</ele><time>2026-04-27T13:34:46.973Z</time></trkpt><trkpt lat="39.55550953178303" lon="8.569666828181337"><ele>374.8333333333333</ele><time>2026-04-27T13:34:47.973Z</time></trkpt><trkpt lat="39.555453167383895" lon="8.569719024989583"><ele>374.6666666666667</ele><time>2026-04-27T13:34:49.973Z</time></trkpt><trkpt lat="39.555400127155785" lon="8.569777837475275"><ele>374.5</ele><time>2026-04-27T13:34:54.973Z</time></trkpt><trkpt lat="39.55534123159257" lon="8.569817680266215"><ele>374.33333333333337</ele><time>2026-04-27T13:34:57.973Z</time></trkpt><trkpt lat="39.55533764652281" lon="8.569675408515241"><ele>374.1666666666667</ele><time>2026-04-27T13:35:09.973Z</time></trkpt><trkpt lat="39.555258249260966" lon="8.569557719080933"><ele>374.0</ele><time>2026-04-27T13:35:11.974Z</time></trkpt><trkpt lat="39.55520297868423" lon="8.56947579238345"><ele>374.0</ele><time>2026-04-27T13:35:12.974Z</time></trkpt><trkpt lat="39.55514236357489" lon="8.569388493262535"><ele>374.0</ele><time>2026-04-27T13:35:13.974Z</time></trkpt><trkpt lat="39.55507907421224" lon="8.569296886288297"><ele>374.0</ele><time>2026-04-27T13:35:14.974Z</time></trkpt><trkpt lat="39.55500344612167" lon="8.569187167926321"><ele>374.0</ele><time>2026-04-27T13:35:15.974Z</time></trkpt><trkpt lat="39.55492164212143" lon="8.5690684897804"><ele>374.0</ele><time>2026-04-27T13:35:16.972Z</time></trkpt><trkpt lat="39.554834913630906" lon="8.568941677041245"><ele>374.0</ele><time>2026-04-27T13:35:17.971Z</time></trkpt><trkpt lat="39.55474480751022" lon="8.568838024353063"><ele>374.0</ele><time>2026-04-27T13:35:18.971Z</time></trkpt><trkpt lat="39.55468364667878" lon="8.568710985929272"><ele>374.0</ele><time>2026-04-27T13:35:19.972Z</time></trkpt><trkpt lat="39.55460860668961" lon="8.568592795039722"><ele>374.0</ele><time>2026-04-27T13:35:20.972Z</time></trkpt><trkpt lat="39.55453655287156" lon="8.568473582099072"><ele>373.83333333333337</ele><time>2026-04-27T13:35:21.972Z</time></trkpt><trkpt lat="39.554463812126635" lon="8.568370148950855"><ele>373.6666666666667</ele><time>2026-04-27T13:35:22.972Z</time></trkpt><trkpt lat="39.554449875181554" lon="8.568263320961282"><ele>373.5</ele><time>2026-04-27T13:35:23.972Z</time></trkpt><trkpt lat="39.5544319141282" lon="8.568154190495608"><ele>373.3333333333333</ele><time>2026-04-27T13:35:24.972Z</time></trkpt><trkpt lat="39.55444213673297" lon="8.568037961638426"><ele>373.16666666666663</ele><time>2026-04-27T13:35:25.971Z</time></trkpt><trkpt lat="39.554454272214095" lon="8.56793520753686"><ele>373.0</ele><time>2026-04-27T13:35:26.971Z</time></trkpt><trkpt lat="39.55447255008463" lon="8.567828189701432"><ele>372.8333333333333</ele><time>2026-04-27T13:35:27.972Z</time></trkpt><trkpt lat="39.55450872206702" lon="8.567710044560476"><ele>372.66666666666663</ele><time>2026-04-27T13:35:28.972Z</time></trkpt><trkpt lat="39.55454093954603" lon="8.567620280312068"><ele>372.5</ele><time>2026-04-27T13:35:29.972Z</time></trkpt><trkpt lat="39.554566327105235" lon="8.567529309115196"><ele>372.3333333333333</ele><time>2026-04-27T13:35:30.972Z</time></trkpt><trkpt lat="39.554578987971176" lon="8.56741502613407"><ele>372.1666666666667</ele><time>2026-04-27T13:35:31.972Z</time></trkpt><trkpt lat="39.55459115273447" lon="8.567279268959519"><ele>372.0</ele><time>2026-04-27T13:35:32.972Z</time></trkpt><trkpt lat="39.55459954189564" lon="8.567151657767788"><ele>371.20000000000005</ele><time>2026-04-27T13:35:33.972Z</time></trkpt><trkpt lat="39.5545854500985" lon="8.567019299067528"><ele>370.4</ele><time>2026-04-27T13:35:34.972Z</time></trkpt><trkpt lat="39.55457418860752" lon="8.566900470901755"><ele>369.6</ele><time>2026-04-27T13:35:35.972Z</time></trkpt><trkpt lat="39.554548430414705" lon="8.566778148830792"><ele>368.79999999999995</ele><time>2026-04-27T13:35:36.972Z</time></trkpt><trkpt lat="39.55452477277329" lon="8.566663265696684"><ele>368.0</ele><time>2026-04-27T13:35:37.972Z</time></trkpt><trkpt lat="39.55449935053573" lon="8.56656360806823"><ele>368.0</ele><time>2026-04-27T13:35:38.972Z</time></trkpt><trkpt lat="39.55449637746358" lon="8.566453485544022"><ele>368.0</ele><time>2026-04-27T13:35:39.972Z</time></trkpt><trkpt lat="39.5544814212199" lon="8.566366940681958"><ele>368.0</ele><time>2026-04-27T13:35:40.972Z</time></trkpt><trkpt lat="39.55446575421044" lon="8.56626364159801"><ele>368.0</ele><time>2026-04-27T13:35:41.972Z</time></trkpt><trkpt lat="39.55444870296304" lon="8.566148039569407"><ele>368.0</ele><time>2026-04-27T13:35:42.972Z</time></trkpt><trkpt lat="39.55442592481732" lon="8.566046432458506"><ele>368.0</ele><time>2026-04-27T13:35:43.972Z</time></trkpt><trkpt lat="39.554403188845136" lon="8.565953375057704"><ele>365.83333333333337</ele><time>2026-04-27T13:35:44.972Z</time></trkpt><trkpt lat="39.55438530569769" lon="8.565847477271136"><ele>363.6666666666667</ele><time>2026-04-27T13:35:45.972Z</time></trkpt><trkpt lat="39.55434587965357" lon="8.565752511940042"><ele>361.5</ele><time>2026-04-27T13:35:46.972Z</time></trkpt><trkpt lat="39.55428302522769" lon="8.565666703434314"><ele>359.3333333333333</ele><time>2026-04-27T13:35:47.972Z</time></trkpt><trkpt lat="39.554224293877205" lon="8.565601198852407"><ele>357.16666666666663</ele><time>2026-04-27T13:35:48.972Z</time></trkpt><trkpt lat="39.55415249020897" lon="8.565535556100647"><ele>355.0</ele><time>2026-04-27T13:35:49.972Z</time></trkpt><trkpt lat="39.55407340918726" lon="8.565495606865667"><ele>355.0</ele><time>2026-04-27T13:35:50.972Z</time></trkpt><trkpt lat="39.55399989141236" lon="8.565465884719028"><ele>355.0</ele><time>2026-04-27T13:35:51.972Z</time></trkpt><trkpt lat="39.553912676908226" lon="8.565443666044608"><ele>355.0</ele><time>2026-04-27T13:35:52.972Z</time></trkpt><trkpt lat="39.553833412964195" lon="8.565432814281124"><ele>355.0</ele><time>2026-04-27T13:35:53.972Z</time></trkpt><trkpt lat="39.55375694124085" lon="8.565449984881052"><ele>355.0</ele><time>2026-04-27T13:35:54.972Z</time></trkpt><trkpt lat="39.55369339911774" lon="8.56542828358826"><ele>355.0</ele><time>2026-04-27T13:35:55.972Z</time></trkpt><trkpt lat="39.55361979759" lon="8.565437383560237"><ele>356.2</ele><time>2026-04-27T13:35:56.972Z</time></trkpt><trkpt lat="39.553540326173234" lon="8.565447595323848"><ele>357.4</ele><time>2026-04-27T13:35:57.972Z</time></trkpt><trkpt lat="39.5534695622261" lon="8.565458473390832"><ele>358.6</ele><time>2026-04-27T13:35:58.972Z</time></trkpt><trkpt lat="39.55334712507272" lon="8.565477264780087"><ele>359.8</ele><time>2026-04-27T13:36:00.972Z</time></trkpt><trkpt lat="39.55323821169655" lon="8.56542214510508"><ele>361.0</ele><time>2026-04-27T13:36:02.972Z</time></trkpt><trkpt lat="39.55320452704082" lon="8.56525683236708"><ele>358.0</ele><time>2026-04-27T13:36:04.972Z</time></trkpt><trkpt lat="39.55320897011661" lon="8.565151987113486"><ele>355.0</ele><time>2026-04-27T13:36:05.972Z</time></trkpt><trkpt lat="39.553225068799435" lon="8.565039151835313"><ele>352.0</ele><time>2026-04-27T13:36:06.972Z</time></trkpt><trkpt lat="39.55326287730573" lon="8.56492286563882"><ele>349.0</ele><time>2026-04-27T13:36:07.973Z</time></trkpt><trkpt lat="39.55331605299767" lon="8.564821355601753"><ele>346.0</ele><time>2026-04-27T13:36:08.973Z</time></trkpt><trkpt lat="39.553383247913125" lon="8.564734062524957"><ele>346.0</ele><time>2026-04-27T13:36:09.973Z</time></trkpt><trkpt lat="39.553469847288106" lon="8.564656002681046"><ele>346.0</ele><time>2026-04-27T13:36:10.973Z</time></trkpt><trkpt lat="39.55354808925416" lon="8.564590956342652"><ele>346.0</ele><time>2026-04-27T13:36:11.973Z</time></trkpt><trkpt lat="39.55362719856506" lon="8.56453301431849"><ele>346.0</ele><time>2026-04-27T13:36:12.973Z</time></trkpt><trkpt lat="39.553703220097994" lon="8.564474281994075"><ele>346.0</ele><time>2026-04-27T13:36:13.973Z</time></trkpt><trkpt lat="39.553775445669835" lon="8.564422192092938"><ele>340.6</ele><time>2026-04-27T13:36:14.973Z</time></trkpt><trkpt lat="39.55384814583982" lon="8.564382584807182"><ele>335.20000000000005</ele><time>2026-04-27T13:36:15.973Z</time></trkpt><trkpt lat="39.55392169560641" lon="8.564274566878572"><ele>329.79999999999995</ele><time>2026-04-27T13:36:17.973Z</time></trkpt><trkpt lat="39.55394128885002" lon="8.564120053020837"><ele>324.4</ele><time>2026-04-27T13:36:19.973Z</time></trkpt><trkpt lat="39.553916361100974" lon="8.56403252594243"><ele>319.0</ele><time>2026-04-27T13:36:20.973Z</time></trkpt><trkpt lat="39.55388679126632" lon="8.56393208161081"><ele>319.0</ele><time>2026-04-27T13:36:21.973Z</time></trkpt><trkpt lat="39.55386636340656" lon="8.56381654525578"><ele>319.0</ele><time>2026-04-27T13:36:22.973Z</time></trkpt><trkpt lat="39.55386530243074" lon="8.563693646991089"><ele>319.0</ele><time>2026-04-27T13:36:23.973Z</time></trkpt><trkpt lat="39.5538491493168" lon="8.563584268997259"><ele>319.0</ele><time>2026-04-27T13:36:24.973Z</time></trkpt><trkpt lat="39.553843841115395" lon="8.563486385767622"><ele>319.0</ele><time>2026-04-27T13:36:25.973Z</time></trkpt><trkpt lat="39.553806474130766" lon="8.563383780313721"><ele>319.0</ele><time>2026-04-27T13:36:26.973Z</time></trkpt><trkpt lat="39.553756344854456" lon="8.56329326759819"><ele>320.0</ele><time>2026-04-27T13:36:27.973Z</time></trkpt><trkpt lat="39.553691439014784" lon="8.563201926587086"><ele>321.0</ele><time>2026-04-27T13:36:28.973Z</time></trkpt><trkpt lat="39.55361441964959" lon="8.563125172419557"><ele>322.0</ele><time>2026-04-27T13:36:29.973Z</time></trkpt><trkpt lat="39.55355572604625" lon="8.563029912441554"><ele>323.0</ele><time>2026-04-27T13:36:30.973Z</time></trkpt><trkpt lat="39.553513445867345" lon="8.562922240742092"><ele>324.0</ele><time>2026-04-27T13:36:31.973Z</time></trkpt><trkpt lat="39.5534859576947" lon="8.56281105930963"><ele>324.0</ele><time>2026-04-27T13:36:32.973Z</time></trkpt><trkpt lat="39.55348150167456" lon="8.56269228303987"><ele>324.0</ele><time>2026-04-27T13:36:33.973Z</time></trkpt><trkpt lat="39.553480430104685" lon="8.5625690857521"><ele>324.0</ele><time>2026-04-27T13:36:34.973Z</time></trkpt><trkpt lat="39.55348505961387" lon="8.562454229886756"><ele>324.0</ele><time>2026-04-27T13:36:35.973Z</time></trkpt><trkpt lat="39.55349274516488" lon="8.562359061610012"><ele>324.0</ele><time>2026-04-27T13:36:36.973Z</time></trkpt><trkpt lat="39.55350418914596" lon="8.562269739975115"><ele>324.0</ele><time>2026-04-27T13:36:37.973Z</time></trkpt><trkpt lat="39.553481511582305" lon="8.56218144892741"><ele>324.0</ele><time>2026-04-27T13:36:38.973Z</time></trkpt><trkpt lat="39.55343717211159" lon="8.562098447243782"><ele>324.0</ele><time>2026-04-27T13:36:39.973Z</time></trkpt><trkpt lat="39.55335518907355" lon="8.56204375003443"><ele>324.0</ele><time>2026-04-27T13:36:40.973Z</time></trkpt><trkpt lat="39.55325622977954" lon="8.562060825267494"><ele>324.0</ele><time>2026-04-27T13:36:41.973Z</time></trkpt><trkpt lat="39.553171626969394" lon="8.562059923643666"><ele>324.0</ele><time>2026-04-27T13:36:42.973Z</time></trkpt><trkpt lat="39.55307551413296" lon="8.562048693289881"><ele>324.0</ele><time>2026-04-27T13:36:43.973Z</time></trkpt><trkpt lat="39.55297313135111" lon="8.562065171272515"><ele>324.0</ele><time>2026-04-27T13:36:44.973Z</time></trkpt><trkpt lat="39.55287095714587" lon="8.562089756458137"><ele>324.0</ele><time>2026-04-27T13:36:45.973Z</time></trkpt><trkpt lat="39.55277118572837" lon="8.562141011298376"><ele>324.0</ele><time>2026-04-27T13:36:46.973Z</time></trkpt><trkpt lat="39.55267854559899" lon="8.562173808256142"><ele>324.0</ele><time>2026-04-27T13:36:47.973Z</time></trkpt><trkpt lat="39.552589163228866" lon="8.56217706825769"><ele>324.6666666666667</ele><time>2026-04-27T13:36:48.973Z</time></trkpt><trkpt lat="39.552515796155916" lon="8.562186578806704"><ele>325.3333333333333</ele><time>2026-04-27T13:36:49.973Z</time></trkpt><trkpt lat="39.55243697699943" lon="8.562162333148832"><ele>326.0</ele><time>2026-04-27T13:36:50.973Z</time></trkpt><trkpt lat="39.55235287554595" lon="8.562114295781942"><ele>326.66666666666663</ele><time>2026-04-27T13:36:51.973Z</time></trkpt><trkpt lat="39.55227155635752" lon="8.562062873218004"><ele>327.3333333333333</ele><time>2026-04-27T13:36:52.973Z</time></trkpt><trkpt lat="39.55219972213031" lon="8.562002686449823"><ele>328.0</ele><time>2026-04-27T13:36:53.973Z</time></trkpt><trkpt lat="39.55215039825857" lon="8.561936651371473"><ele>324.66666666666663</ele><time>2026-04-27T13:36:54.973Z</time></trkpt><trkpt lat="39.552106894970166" lon="8.561858710088686"><ele>321.3333333333333</ele><time>2026-04-27T13:36:55.973Z</time></trkpt><trkpt lat="39.55207223828023" lon="8.561776586784147"><ele>318.0</ele><time>2026-04-27T13:36:56.973Z</time></trkpt><trkpt lat="39.55207239668878" lon="8.561672875898909"><ele>314.6666666666667</ele><time>2026-04-27T13:36:57.973Z</time></trkpt><trkpt lat="39.55212723257123" lon="8.561593116607328"><ele>311.33333333333337</ele><time>2026-04-27T13:36:58.973Z</time></trkpt><trkpt lat="39.55218372829659" lon="8.561519318420146"><ele>308.0</ele><time>2026-04-27T13:36:59.973Z</time></trkpt><trkpt lat="39.552243044245095" lon="8.561428940098631"><ele>308.0</ele><time>2026-04-27T13:37:00.973Z</time></trkpt><trkpt lat="39.55231457084008" lon="8.561319816877369"><ele>308.0</ele><time>2026-04-27T13:37:01.973Z</time></trkpt><trkpt lat="39.55236915455765" lon="8.561192874507592"><ele>308.0</ele><time>2026-04-27T13:37:02.973Z</time></trkpt><trkpt lat="39.552445142530026" lon="8.561081916234672"><ele>308.0</ele><time>2026-04-27T13:37:03.973Z</time></trkpt><trkpt lat="39.552478232693865" lon="8.560970867794943"><ele>308.0</ele><time>2026-04-27T13:37:04.973Z</time></trkpt><trkpt lat="39.55252370883838" lon="8.560877724351107"><ele>306.6</ele><time>2026-04-27T13:37:05.973Z</time></trkpt><trkpt lat="39.552529614814766" lon="8.56075764732727"><ele>305.20000000000005</ele><time>2026-04-27T13:37:06.973Z</time></trkpt><trkpt lat="39.55252027332898" lon="8.56064063503297"><ele>303.8</ele><time>2026-04-27T13:37:07.973Z</time></trkpt><trkpt lat="39.55249402297908" lon="8.560519194096981"><ele>302.40000000000003</ele><time>2026-04-27T13:37:08.973Z</time></trkpt><trkpt lat="39.55245596475685" lon="8.560410000020001"><ele>301.0</ele><time>2026-04-27T13:37:09.974Z</time></trkpt><trkpt lat="39.55241230933357" lon="8.560322452870198"><ele>301.5</ele><time>2026-04-27T13:37:10.974Z</time></trkpt><trkpt lat="39.55235167827986" lon="8.56025898849047"><ele>302.0</ele><time>2026-04-27T13:37:11.974Z</time></trkpt><trkpt lat="39.55227444933173" lon="8.560218566171729"><ele>302.5</ele><time>2026-04-27T13:37:12.974Z</time></trkpt><trkpt lat="39.552180032515075" lon="8.560215663859136"><ele>303.0</ele><time>2026-04-27T13:37:13.974Z</time></trkpt><trkpt lat="39.55208718820151" lon="8.560237851000036"><ele>303.5</ele><time>2026-04-27T13:37:14.974Z</time></trkpt><trkpt lat="39.55199633114933" lon="8.56025507315313"><ele>304.0</ele><time>2026-04-27T13:37:15.974Z</time></trkpt><trkpt lat="39.5519043064038" lon="8.560268035660663"><ele>304.0</ele><time>2026-04-27T13:37:16.974Z</time></trkpt><trkpt lat="39.551837794441646" lon="8.56025580800864"><ele>304.0</ele><time>2026-04-27T13:37:17.974Z</time></trkpt><trkpt lat="39.551736162421285" lon="8.560186276228759"><ele>304.0</ele><time>2026-04-27T13:37:19.974Z</time></trkpt><trkpt lat="39.55169295532856" lon="8.56002122261405"><ele>304.0</ele><time>2026-04-27T13:37:21.974Z</time></trkpt><trkpt lat="39.55170406291047" lon="8.559919632099847"><ele>304.0</ele><time>2026-04-27T13:37:22.973Z</time></trkpt><trkpt lat="39.55175239249496" lon="8.559816303913939"><ele>304.0</ele><time>2026-04-27T13:37:23.972Z</time></trkpt><trkpt lat="39.55177000117522" lon="8.55969725953156"><ele>304.0</ele><time>2026-04-27T13:37:24.972Z</time></trkpt><trkpt lat="39.55179929450504" lon="8.559583858442053"><ele>304.0</ele><time>2026-04-27T13:37:25.972Z</time></trkpt><trkpt lat="39.5518154358448" lon="8.559478507066725"><ele>304.0</ele><time>2026-04-27T13:37:26.972Z</time></trkpt><trkpt lat="39.551818880083104" lon="8.559366645496244"><ele>304.0</ele><time>2026-04-27T13:37:27.972Z</time></trkpt><trkpt lat="39.55182246192579" lon="8.55923692271656"><ele>304.4</ele><time>2026-04-27T13:37:28.972Z</time></trkpt><trkpt lat="39.551827305674585" lon="8.559115737861644"><ele>304.79999999999995</ele><time>2026-04-27T13:37:29.972Z</time></trkpt><trkpt lat="39.5518230475403" lon="8.558987526812583"><ele>305.20000000000005</ele><time>2026-04-27T13:37:30.972Z</time></trkpt><trkpt lat="39.551806787312245" lon="8.558858898840631"><ele>305.6</ele><time>2026-04-27T13:37:31.972Z</time></trkpt><trkpt lat="39.55178092083321" lon="8.558739129581523"><ele>306.0</ele><time>2026-04-27T13:37:32.973Z</time></trkpt><trkpt lat="39.55174135069518" lon="8.558651328201812"><ele>304.8</ele><time>2026-04-27T13:37:33.973Z</time></trkpt><trkpt lat="39.551699299355086" lon="8.558557049496848"><ele>303.6</ele><time>2026-04-27T13:37:34.972Z</time></trkpt><trkpt lat="39.55164390141969" lon="8.558482555031732"><ele>302.4</ele><time>2026-04-27T13:37:35.973Z</time></trkpt><trkpt lat="39.55156721457299" lon="8.558403244911768"><ele>301.2</ele><time>2026-04-27T13:37:36.973Z</time></trkpt><trkpt lat="39.55149152044626" lon="8.558335903166167"><ele>300.0</ele><time>2026-04-27T13:37:37.973Z</time></trkpt><trkpt lat="39.55138630872009" lon="8.55826140457795"><ele>300.0</ele><time>2026-04-27T13:37:38.973Z</time></trkpt><trkpt lat="39.55130063989094" lon="8.558177061402464"><ele>300.0</ele><time>2026-04-27T13:37:39.973Z</time></trkpt><trkpt lat="39.55120947304659" lon="8.558093582742293"><ele>300.0</ele><time>2026-04-27T13:37:40.973Z</time></trkpt><trkpt lat="39.55111968951014" lon="8.558015952346409"><ele>300.0</ele><time>2026-04-27T13:37:41.973Z</time></trkpt><trkpt lat="39.551047100417605" lon="8.55793768658282"><ele>300.0</ele><time>2026-04-27T13:37:42.973Z</time></trkpt><trkpt lat="39.55098742889328" lon="8.557848604301887"><ele>300.6</ele><time>2026-04-27T13:37:43.973Z</time></trkpt><trkpt lat="39.55094290333606" lon="8.557741175587099"><ele>301.2</ele><time>2026-04-27T13:37:44.973Z</time></trkpt><trkpt lat="39.550920381067286" lon="8.557624015834227"><ele>301.8</ele><time>2026-04-27T13:37:45.973Z</time></trkpt><trkpt lat="39.55091425319829" lon="8.557491514731803"><ele>302.4</ele><time>2026-04-27T13:37:46.973Z</time></trkpt><trkpt lat="39.550898363517" lon="8.557366211863423"><ele>303.0</ele><time>2026-04-27T13:37:47.973Z</time></trkpt><trkpt lat="39.55086964272334" lon="8.557260509721287"><ele>303.0</ele><time>2026-04-27T13:37:48.973Z</time></trkpt><trkpt lat="39.550837630208086" lon="8.557161896180355"><ele>303.0</ele><time>2026-04-27T13:37:49.973Z</time></trkpt><trkpt lat="39.550756676165165" lon="8.557100243822145"><ele>303.0</ele><time>2026-04-27T13:37:50.973Z</time></trkpt><trkpt lat="39.550668885310486" lon="8.557058026429178"><ele>303.0</ele><time>2026-04-27T13:37:51.973Z</time></trkpt><trkpt lat="39.550555900059976" lon="8.557045759190906"><ele>303.0</ele><time>2026-04-27T13:37:52.973Z</time></trkpt><trkpt lat="39.550438502249314" lon="8.557014360252204"><ele>302.6</ele><time>2026-04-27T13:37:53.973Z</time></trkpt><trkpt lat="39.5503230571944" lon="8.556984590541763"><ele>302.20000000000005</ele><time>2026-04-27T13:37:54.973Z</time></trkpt><trkpt lat="39.55022279928224" lon="8.556938967917468"><ele>301.8</ele><time>2026-04-27T13:37:55.973Z</time></trkpt><trkpt lat="39.55012855827179" lon="8.556912153628373"><ele>301.40000000000003</ele><time>2026-04-27T13:37:56.973Z</time></trkpt><trkpt lat="39.550046782228854" lon="8.556885334855425"><ele>301.0</ele><time>2026-04-27T13:37:57.973Z</time></trkpt><trkpt lat="39.54997535957296" lon="8.55685246652743"><ele>301.0</ele><time>2026-04-27T13:37:58.973Z</time></trkpt><trkpt lat="39.54992741908438" lon="8.556769439548225"><ele>301.0</ele><time>2026-04-27T13:37:59.973Z</time></trkpt><trkpt lat="39.54990779636765" lon="8.556641124233725"><ele>301.0</ele><time>2026-04-27T13:38:00.973Z</time></trkpt><trkpt lat="39.54987425749052" lon="8.556506470187749"><ele>301.0</ele><time>2026-04-27T13:38:01.973Z</time></trkpt><trkpt lat="39.549870629712956" lon="8.556397864823877"><ele>301.0</ele><time>2026-04-27T13:38:02.973Z</time></trkpt><trkpt lat="39.549841641983726" lon="8.556258514434036"><ele>299.0</ele><time>2026-04-27T13:38:03.973Z</time></trkpt><trkpt lat="39.549788617304756" lon="8.556118096439953"><ele>297.0</ele><time>2026-04-27T13:38:04.973Z</time></trkpt><trkpt lat="39.54969552981974" lon="8.556014620426094"><ele>295.0</ele><time>2026-04-27T13:38:05.973Z</time></trkpt><trkpt lat="39.54963735617827" lon="8.555919294174448"><ele>293.0</ele><time>2026-04-27T13:38:06.973Z</time></trkpt><trkpt lat="39.54959967563691" lon="8.555828714815034"><ele>291.0</ele><time>2026-04-27T13:38:07.973Z</time></trkpt><trkpt lat="39.54963234623924" lon="8.555719653802596"><ele>291.0</ele><time>2026-04-27T13:38:08.973Z</time></trkpt><trkpt lat="39.54967888262655" lon="8.555650403961502"><ele>291.0</ele><time>2026-04-27T13:38:09.973Z</time></trkpt><trkpt lat="39.549714735420565" lon="8.555537084642811"><ele>291.0</ele><time>2026-04-27T13:38:10.973Z</time></trkpt><trkpt lat="39.549747718824" lon="8.555396206125792"><ele>291.0</ele><time>2026-04-27T13:38:11.973Z</time></trkpt><trkpt lat="39.54975565675464" lon="8.555245815419532"><ele>291.0</ele><time>2026-04-27T13:38:12.973Z</time></trkpt><trkpt lat="39.5497458174654" lon="8.55510104109937"><ele>291.5</ele><time>2026-04-27T13:38:13.973Z</time></trkpt><trkpt lat="39.54973097364844" lon="8.554959065789676"><ele>292.0</ele><time>2026-04-27T13:38:14.973Z</time></trkpt><trkpt lat="39.54968650819518" lon="8.554811776357283"><ele>292.5</ele><time>2026-04-27T13:38:15.973Z</time></trkpt><trkpt lat="39.549633590913345" lon="8.55467287784461"><ele>293.0</ele><time>2026-04-27T13:38:16.973Z</time></trkpt><trkpt lat="39.549601059478626" lon="8.554520795067667"><ele>296.4</ele><time>2026-04-27T13:38:17.973Z</time></trkpt><trkpt lat="39.5495193145081" lon="8.554392997320663"><ele>299.8</ele><time>2026-04-27T13:38:18.973Z</time></trkpt><trkpt lat="39.549447594930626" lon="8.554278658078651"><ele>303.2</ele><time>2026-04-27T13:38:19.973Z</time></trkpt><trkpt lat="39.54936793510247" lon="8.554195053132197"><ele>306.6</ele><time>2026-04-27T13:38:20.973Z</time></trkpt><trkpt lat="39.54927584525236" lon="8.554137221638719"><ele>310.0</ele><time>2026-04-27T13:38:21.973Z</time></trkpt><trkpt lat="39.54917809942907" lon="8.554101320486724"><ele>310.0</ele><time>2026-04-27T13:38:22.973Z</time></trkpt><trkpt lat="39.549080645840135" lon="8.554056616734108"><ele>310.0</ele><time>2026-04-27T13:38:23.973Z</time></trkpt><trkpt lat="39.54900293914973" lon="8.553965919853155"><ele>310.0</ele><time>2026-04-27T13:38:24.973Z</time></trkpt><trkpt lat="39.54893683744808" lon="8.553859697615328"><ele>310.0</ele><time>2026-04-27T13:38:25.973Z</time></trkpt><trkpt lat="39.54888040721416" lon="8.553745867966269"><ele>310.0</ele><time>2026-04-27T13:38:26.973Z</time></trkpt><trkpt lat="39.54883509868241" lon="8.55362185105465"><ele>307.2</ele><time>2026-04-27T13:38:27.973Z</time></trkpt><trkpt lat="39.54879873539418" lon="8.553493501055568"><ele>304.4</ele><time>2026-04-27T13:38:28.973Z</time></trkpt><trkpt lat="39.54877771134015" lon="8.553366980299506"><ele>301.6</ele><time>2026-04-27T13:38:29.973Z</time></trkpt><trkpt lat="39.54877498078295" lon="8.553227995587422"><ele>298.8</ele><time>2026-04-27T13:38:30.973Z</time></trkpt><trkpt lat="39.548787730046264" lon="8.553094288360954"><ele>296.0</ele><time>2026-04-27T13:38:31.974Z</time></trkpt><trkpt lat="39.548827586786935" lon="8.552960799560138"><ele>295.5</ele><time>2026-04-27T13:38:32.974Z</time></trkpt><trkpt lat="39.54884140056556" lon="8.552833060924465"><ele>295.0</ele><time>2026-04-27T13:38:33.974Z</time></trkpt><trkpt lat="39.54884084308613" lon="8.552699999324112"><ele>294.5</ele><time>2026-04-27T13:38:34.974Z</time></trkpt><trkpt lat="39.54883325117593" lon="8.552601968841987"><ele>294.0</ele><time>2026-04-27T13:38:35.974Z</time></trkpt><trkpt lat="39.5487923382875" lon="8.552523495059207"><ele>293.5</ele><time>2026-04-27T13:38:36.974Z</time></trkpt><trkpt lat="39.548708111374935" lon="8.552485034652566"><ele>293.0</ele><time>2026-04-27T13:38:37.974Z</time></trkpt><trkpt lat="39.54860698091952" lon="8.552489269929412"><ele>297.2</ele><time>2026-04-27T13:38:38.974Z</time></trkpt><trkpt lat="39.54851707383973" lon="8.552489379952673"><ele>301.4</ele><time>2026-04-27T13:38:39.974Z</time></trkpt><trkpt lat="39.548403339387974" lon="8.552463418573089"><ele>305.59999999999997</ele><time>2026-04-27T13:38:40.974Z</time></trkpt><trkpt lat="39.54828607925005" lon="8.552455846906048"><ele>309.8</ele><time>2026-04-27T13:38:41.974Z</time></trkpt><trkpt lat="39.548164473779444" lon="8.552437454699806"><ele>314.0</ele><time>2026-04-27T13:38:42.974Z</time></trkpt><trkpt lat="39.54803905382517" lon="8.552413982608229"><ele>314.0</ele><time>2026-04-27T13:38:43.974Z</time></trkpt><trkpt lat="39.54792594422263" lon="8.552390892197288"><ele>314.0</ele><time>2026-04-27T13:38:44.974Z</time></trkpt><trkpt lat="39.547810834658016" lon="8.552347864681048"><ele>314.0</ele><time>2026-04-27T13:38:45.974Z</time></trkpt><trkpt lat="39.54771621521835" lon="8.552281833615869"><ele>314.0</ele><time>2026-04-27T13:38:46.974Z</time></trkpt><trkpt lat="39.547617140341" lon="8.552224048421397"><ele>314.4</ele><time>2026-04-27T13:38:47.974Z</time></trkpt><trkpt lat="39.54752496980851" lon="8.55212847236151"><ele>314.79999999999995</ele><time>2026-04-27T13:38:48.974Z</time></trkpt><trkpt lat="39.54746115735946" lon="8.552021607289547"><ele>315.20000000000005</ele><time>2026-04-27T13:38:49.974Z</time></trkpt><trkpt lat="39.54740839817692" lon="8.551900817863405"><ele>315.6</ele><time>2026-04-27T13:38:50.974Z</time></trkpt><trkpt lat="39.54738179969397" lon="8.55176538224022"><ele>316.0</ele><time>2026-04-27T13:38:51.974Z</time></trkpt><trkpt lat="39.54735331712091" lon="8.551631652750894"><ele>316.0</ele><time>2026-04-27T13:38:52.974Z</time></trkpt><trkpt lat="39.54732729405121" lon="8.551491625173586"><ele>316.0</ele><time>2026-04-27T13:38:53.974Z</time></trkpt><trkpt lat="39.54730647716149" lon="8.551344664921288"><ele>316.0</ele><time>2026-04-27T13:38:54.974Z</time></trkpt><trkpt lat="39.54729337373542" lon="8.551194449905527"><ele>316.0</ele><time>2026-04-27T13:38:55.974Z</time></trkpt><trkpt lat="39.547287949426085" lon="8.55104320911632"><ele>316.25</ele><time>2026-04-27T13:38:56.974Z</time></trkpt><trkpt lat="39.54729855330046" lon="8.550886660081387"><ele>316.5</ele><time>2026-04-27T13:38:57.974Z</time></trkpt><trkpt lat="39.54730882684272" lon="8.550731567328503"><ele>316.75</ele><time>2026-04-27T13:38:58.974Z</time></trkpt><trkpt lat="39.54732883944777" lon="8.550564237712818"><ele>317.0</ele><time>2026-04-27T13:38:59.974Z</time></trkpt><trkpt lat="39.547351198149435" lon="8.550411487258794"><ele>318.1666666666667</ele><time>2026-04-27T13:39:00.974Z</time></trkpt><trkpt lat="39.54737007953728" lon="8.550264077344009"><ele>319.33333333333337</ele><time>2026-04-27T13:39:01.974Z</time></trkpt><trkpt lat="39.54738994735344" lon="8.550136445526247"><ele>320.5</ele><time>2026-04-27T13:39:02.974Z</time></trkpt><trkpt lat="39.54738716087719" lon="8.550039792118778"><ele>321.6666666666667</ele><time>2026-04-27T13:39:03.974Z</time></trkpt><trkpt lat="39.54736426386011" lon="8.549948629755962"><ele>322.8333333333333</ele><time>2026-04-27T13:39:04.974Z</time></trkpt><trkpt lat="39.54732224926329" lon="8.549858068014855"><ele>324.0</ele><time>2026-04-27T13:39:05.974Z</time></trkpt><trkpt lat="39.547260425663616" lon="8.549788507757128"><ele>324.0</ele><time>2026-04-27T13:39:06.974Z</time></trkpt><trkpt lat="39.54718228765801" lon="8.549732968173764"><ele>324.0</ele><time>2026-04-27T13:39:07.974Z</time></trkpt><trkpt lat="39.547100391627545" lon="8.549696892464466"><ele>324.0</ele><time>2026-04-27T13:39:08.974Z</time></trkpt><trkpt lat="39.54700198398876" lon="8.549680213569943"><ele>324.0</ele><time>2026-04-27T13:39:09.974Z</time></trkpt><trkpt lat="39.54690162416568" lon="8.54965449720985"><ele>324.0</ele><time>2026-04-27T13:39:10.974Z</time></trkpt><trkpt lat="39.546806349174034" lon="8.549599398529582"><ele>325.0</ele><time>2026-04-27T13:39:11.974Z</time></trkpt><trkpt lat="39.5467262291411" lon="8.549515037647264"><ele>326.0</ele><time>2026-04-27T13:39:12.974Z</time></trkpt><trkpt lat="39.54666944184438" lon="8.54941174677586"><ele>327.0</ele><time>2026-04-27T13:39:13.974Z</time></trkpt><trkpt lat="39.54662812226059" lon="8.549291814281359"><ele>328.0</ele><time>2026-04-27T13:39:14.974Z</time></trkpt><trkpt lat="39.54660720837343" lon="8.549169741761057"><ele>329.0</ele><time>2026-04-27T13:39:15.974Z</time></trkpt><trkpt lat="39.54659050390423" lon="8.549037916860687"><ele>329.0</ele><time>2026-04-27T13:39:16.974Z</time></trkpt><trkpt lat="39.54657561580747" lon="8.548899878244285"><ele>329.0</ele><time>2026-04-27T13:39:17.974Z</time></trkpt><trkpt lat="39.54654746098875" lon="8.548759362274652"><ele>329.0</ele><time>2026-04-27T13:39:18.974Z</time></trkpt><trkpt lat="39.54651610087137" lon="8.548614693057273"><ele>329.0</ele><time>2026-04-27T13:39:19.974Z</time></trkpt><trkpt lat="39.5464794757101" lon="8.5484766170725"><ele>329.0</ele><time>2026-04-27T13:39:20.974Z</time></trkpt><trkpt lat="39.54642489779073" lon="8.54834062302188"><ele>328.2</ele><time>2026-04-27T13:39:21.974Z</time></trkpt><trkpt lat="39.54636708346096" lon="8.548226423230162"><ele>327.4</ele><time>2026-04-27T13:39:22.974Z</time></trkpt><trkpt lat="39.546304223330765" lon="8.548145324258785"><ele>326.6</ele><time>2026-04-27T13:39:23.974Z</time></trkpt><trkpt lat="39.546227137627625" lon="8.548085983548052"><ele>325.8</ele><time>2026-04-27T13:39:24.974Z</time></trkpt><trkpt lat="39.54614151777092" lon="8.548011901784417"><ele>325.0</ele><time>2026-04-27T13:39:25.974Z</time></trkpt><trkpt lat="39.54604469888116" lon="8.547943729568592"><ele>326.4</ele><time>2026-04-27T13:39:26.974Z</time></trkpt><trkpt lat="39.54593931353209" lon="8.547885703936792"><ele>327.8</ele><time>2026-04-27T13:39:27.974Z</time></trkpt><trkpt lat="39.54583668956289" lon="8.547822696620718"><ele>329.20000000000005</ele><time>2026-04-27T13:39:28.973Z</time></trkpt><trkpt lat="39.54573186588386" lon="8.547787761523136"><ele>330.6</ele><time>2026-04-27T13:39:29.973Z</time></trkpt><trkpt lat="39.54565307685098" lon="8.547736173703273"><ele>332.0</ele><time>2026-04-27T13:39:30.973Z</time></trkpt><trkpt lat="39.54558059755764" lon="8.54766108785937"><ele>332.0</ele><time>2026-04-27T13:39:31.972Z</time></trkpt><trkpt lat="39.54553220381504" lon="8.547571371132367"><ele>332.0</ele><time>2026-04-27T13:39:32.973Z</time></trkpt><trkpt lat="39.54549890468699" lon="8.547460441418085"><ele>332.0</ele><time>2026-04-27T13:39:33.973Z</time></trkpt><trkpt lat="39.54547189335763" lon="8.547343869974297"><ele>332.0</ele><time>2026-04-27T13:39:34.973Z</time></trkpt><trkpt lat="39.54544233734972" lon="8.54722992070928"><ele>332.0</ele><time>2026-04-27T13:39:35.973Z</time></trkpt><trkpt lat="39.54540142451239" lon="8.547109759603462"><ele>333.6</ele><time>2026-04-27T13:39:36.973Z</time></trkpt><trkpt lat="39.54533841769257" lon="8.547007188284066"><ele>335.20000000000005</ele><time>2026-04-27T13:39:37.973Z</time></trkpt><trkpt lat="39.545256818948914" lon="8.546935620012796"><ele>336.8</ele><time>2026-04-27T13:39:38.973Z</time></trkpt><trkpt lat="39.545158791627195" lon="8.546917655128508"><ele>338.4</ele><time>2026-04-27T13:39:39.973Z</time></trkpt><trkpt lat="39.54506125383534" lon="8.546876350898009"><ele>340.0</ele><time>2026-04-27T13:39:40.973Z</time></trkpt><trkpt lat="39.544963178034436" lon="8.546841876511172"><ele>340.0</ele><time>2026-04-27T13:39:41.972Z</time></trkpt><trkpt lat="39.54486008461656" lon="8.546805609119506"><ele>340.0</ele><time>2026-04-27T13:39:42.973Z</time></trkpt><trkpt lat="39.54474714129009" lon="8.546779568019433"><ele>340.0</ele><time>2026-04-27T13:39:43.973Z</time></trkpt><trkpt lat="39.5446352896357" lon="8.546746668095382"><ele>340.0</ele><time>2026-04-27T13:39:44.973Z</time></trkpt><trkpt lat="39.54453286974818" lon="8.546701337857348"><ele>340.0</ele><time>2026-04-27T13:39:45.973Z</time></trkpt><trkpt lat="39.54446361344362" lon="8.546630190865486"><ele>339.8333333333333</ele><time>2026-04-27T13:39:46.973Z</time></trkpt><trkpt lat="39.54440361409792" lon="8.546600591939793"><ele>339.66666666666663</ele><time>2026-04-27T13:39:47.973Z</time></trkpt><trkpt lat="39.544356963343446" lon="8.546524552032313"><ele>339.5</ele><time>2026-04-27T13:39:48.973Z</time></trkpt><trkpt lat="39.544329018780815" lon="8.546427009030541"><ele>339.3333333333333</ele><time>2026-04-27T13:39:49.973Z</time></trkpt><trkpt lat="39.544305639722076" lon="8.546316223077392"><ele>339.1666666666667</ele><time>2026-04-27T13:39:50.973Z</time></trkpt><trkpt lat="39.5442733775394" lon="8.546202089756877"><ele>339.0</ele><time>2026-04-27T13:39:51.973Z</time></trkpt><trkpt lat="39.54421836206716" lon="8.546094891643799"><ele>339.0</ele><time>2026-04-27T13:39:52.973Z</time></trkpt><trkpt lat="39.54415858294298" lon="8.546003366949865"><ele>339.0</ele><time>2026-04-27T13:39:53.973Z</time></trkpt><trkpt lat="39.5440787469655" lon="8.545922245751939"><ele>339.0</ele><time>2026-04-27T13:39:54.973Z</time></trkpt><trkpt lat="39.543988437490626" lon="8.545856934034054"><ele>339.0</ele><time>2026-04-27T13:39:55.973Z</time></trkpt><trkpt lat="39.54389837569564" lon="8.545805124599573"><ele>339.0</ele><time>2026-04-27T13:39:56.973Z</time></trkpt><trkpt lat="39.54379878567195" lon="8.545759334071171"><ele>335.5</ele><time>2026-04-27T13:39:57.973Z</time></trkpt><trkpt lat="39.54370362388058" lon="8.54572806133306"><ele>332.0</ele><time>2026-04-27T13:39:58.973Z</time></trkpt><trkpt lat="39.54361135497791" lon="8.5456947559244"><ele>328.5</ele><time>2026-04-27T13:39:59.973Z</time></trkpt><trkpt lat="39.54352286224459" lon="8.545654406748092"><ele>325.0</ele><time>2026-04-27T13:40:00.973Z</time></trkpt><trkpt lat="39.54344487292775" lon="8.545605843432096"><ele>321.5</ele><time>2026-04-27T13:40:01.973Z</time></trkpt><trkpt lat="39.54338570457514" lon="8.545554309846617"><ele>318.0</ele><time>2026-04-27T13:40:02.973Z</time></trkpt><trkpt lat="39.54334774825907" lon="8.545482736159892"><ele>318.2</ele><time>2026-04-27T13:40:03.973Z</time></trkpt><trkpt lat="39.54334976247302" lon="8.545358343368605"><ele>318.4</ele><time>2026-04-27T13:40:05.973Z</time></trkpt><trkpt lat="39.54341938884303" lon="8.54527858840574"><ele>318.59999999999997</ele><time>2026-04-27T13:40:07.973Z</time></trkpt><trkpt lat="39.54351915581186" lon="8.545320643660721"><ele>318.8</ele><time>2026-04-27T13:40:09.973Z</time></trkpt><trkpt lat="39.5435838952083" lon="8.545340914314274"><ele>319.0</ele><time>2026-04-27T13:40:10.973Z</time></trkpt><trkpt lat="39.543691268090754" lon="8.545330126973324"><ele>323.4</ele><time>2026-04-27T13:40:12.973Z</time></trkpt><trkpt lat="39.54373789102566" lon="8.545262772764106"><ele>327.79999999999995</ele><time>2026-04-27T13:40:13.973Z</time></trkpt><trkpt lat="39.54378426980233" lon="8.54517016480094"><ele>332.20000000000005</ele><time>2026-04-27T13:40:14.973Z</time></trkpt><trkpt lat="39.54381427502966" lon="8.54504463052301"><ele>336.6</ele><time>2026-04-27T13:40:15.973Z</time></trkpt><trkpt lat="39.54383151853881" lon="8.544912450067567"><ele>341.0</ele><time>2026-04-27T13:40:16.973Z</time></trkpt><trkpt lat="39.54383729381383" lon="8.54478951250793"><ele>341.0</ele><time>2026-04-27T13:40:17.973Z</time></trkpt><trkpt lat="39.543834250050516" lon="8.544693096153445"><ele>341.0</ele><time>2026-04-27T13:40:18.973Z</time></trkpt><trkpt lat="39.54382544548349" lon="8.54460749489348"><ele>341.0</ele><time>2026-04-27T13:40:19.973Z</time></trkpt><trkpt lat="39.5438002039478" lon="8.544508142454296"><ele>341.0</ele><time>2026-04-27T13:40:20.973Z</time></trkpt><trkpt lat="39.54377082903305" lon="8.544395793662016"><ele>341.0</ele><time>2026-04-27T13:40:21.973Z</time></trkpt><trkpt lat="39.54372905422219" lon="8.544265634017586"><ele>341.0</ele><time>2026-04-27T13:40:22.973Z</time></trkpt><trkpt lat="39.54367559494598" lon="8.54412797773654"><ele>337.4</ele><time>2026-04-27T13:40:23.973Z</time></trkpt><trkpt lat="39.54361966706709" lon="8.544002952277756"><ele>333.8</ele><time>2026-04-27T13:40:24.973Z</time></trkpt><trkpt lat="39.54355701595142" lon="8.543892692095499"><ele>330.2</ele><time>2026-04-27T13:40:25.973Z</time></trkpt><trkpt lat="39.543478484046446" lon="8.543802193125744"><ele>326.59999999999997</ele><time>2026-04-27T13:40:26.973Z</time></trkpt><trkpt lat="39.543409479582984" lon="8.543698148272343"><ele>323.0</ele><time>2026-04-27T13:40:27.973Z</time></trkpt><trkpt lat="39.543342850759466" lon="8.543585736246435"><ele>323.0</ele><time>2026-04-27T13:40:28.973Z</time></trkpt><trkpt lat="39.543268958634386" lon="8.543484856891345"><ele>323.0</ele><time>2026-04-27T13:40:29.973Z</time></trkpt><trkpt lat="39.54319418246193" lon="8.543388489229022"><ele>323.0</ele><time>2026-04-27T13:40:30.973Z</time></trkpt><trkpt lat="39.54311582109196" lon="8.543284886922606"><ele>323.0</ele><time>2026-04-27T13:40:31.973Z</time></trkpt><trkpt lat="39.543049568783594" lon="8.543182895377297"><ele>323.0</ele><time>2026-04-27T13:40:32.973Z</time></trkpt><trkpt lat="39.54297258071861" lon="8.543104968692884"><ele>323.0</ele><time>2026-04-27T13:40:33.973Z</time></trkpt><trkpt lat="39.54290243459568" lon="8.543040769188456"><ele>323.0</ele><time>2026-04-27T13:40:34.973Z</time></trkpt><trkpt lat="39.54278710588503" lon="8.54297391000567"><ele>323.0</ele><time>2026-04-27T13:40:36.973Z</time></trkpt><trkpt lat="39.542657179146794" lon="8.542964271749812"><ele>323.0</ele><time>2026-04-27T13:40:38.973Z</time></trkpt><trkpt lat="39.542582597980044" lon="8.542995251469272"><ele>323.0</ele><time>2026-04-27T13:40:39.973Z</time></trkpt><trkpt lat="39.54250353642855" lon="8.543037609053963"><ele>319.59999999999997</ele><time>2026-04-27T13:40:40.973Z</time></trkpt><trkpt lat="39.542420409497204" lon="8.543106276067478"><ele>316.2</ele><time>2026-04-27T13:40:41.973Z</time></trkpt><trkpt lat="39.54232745287877" lon="8.543149706360875"><ele>312.8</ele><time>2026-04-27T13:40:42.973Z</time></trkpt><trkpt lat="39.54222702116321" lon="8.54321422106799"><ele>309.4</ele><time>2026-04-27T13:40:43.974Z</time></trkpt><trkpt lat="39.54213144797675" lon="8.543279328597265"><ele>306.0</ele><time>2026-04-27T13:40:44.974Z</time></trkpt><trkpt lat="39.54203665142084" lon="8.543324472939243"><ele>305.3333333333333</ele><time>2026-04-27T13:40:45.974Z</time></trkpt><trkpt lat="39.54196456909865" lon="8.543352283755517"><ele>304.6666666666667</ele><time>2026-04-27T13:40:46.974Z</time></trkpt><trkpt lat="39.541892159396106" lon="8.54337329436871"><ele>304.0</ele><time>2026-04-27T13:40:47.974Z</time></trkpt><trkpt lat="39.54180512095806" lon="8.543358386252237"><ele>303.33333333333337</ele><time>2026-04-27T13:40:48.974Z</time></trkpt><trkpt lat="39.54171472599689" lon="8.543322441228765"><ele>302.6666666666667</ele><time>2026-04-27T13:40:49.974Z</time></trkpt><trkpt lat="39.541626962349454" lon="8.5432459947654"><ele>302.0</ele><time>2026-04-27T13:40:50.974Z</time></trkpt><trkpt lat="39.54153361031265" lon="8.543202274384829"><ele>302.0</ele><time>2026-04-27T13:40:51.974Z</time></trkpt><trkpt lat="39.5414467869792" lon="8.543160983568983"><ele>302.0</ele><time>2026-04-27T13:40:52.974Z</time></trkpt><trkpt lat="39.541362225749594" lon="8.543119837996436"><ele>302.0</ele><time>2026-04-27T13:40:53.974Z</time></trkpt><trkpt lat="39.54128265574885" lon="8.543070291183689"><ele>302.0</ele><time>2026-04-27T13:40:54.974Z</time></trkpt><trkpt lat="39.54121320252184" lon="8.542999699585517"><ele>302.0</ele><time>2026-04-27T13:40:55.974Z</time></trkpt><trkpt lat="39.541154015292925" lon="8.5429149966676"><ele>302.0</ele><time>2026-04-27T13:40:56.974Z</time></trkpt><trkpt lat="39.541095770458774" lon="8.542812559530045"><ele>299.4</ele><time>2026-04-27T13:40:57.974Z</time></trkpt><trkpt lat="39.541040703343114" lon="8.542700792296406"><ele>296.79999999999995</ele><time>2026-04-27T13:40:58.974Z</time></trkpt><trkpt lat="39.54098602058961" lon="8.542583884615713"><ele>294.2</ele><time>2026-04-27T13:40:59.974Z</time></trkpt><trkpt lat="39.54092748204775" lon="8.542466560643735"><ele>291.59999999999997</ele><time>2026-04-27T13:41:00.974Z</time></trkpt><trkpt lat="39.540870898495456" lon="8.542356217682908"><ele>289.0</ele><time>2026-04-27T13:41:01.974Z</time></trkpt><trkpt lat="39.540815450160416" lon="8.54224715850253"><ele>289.0</ele><time>2026-04-27T13:41:02.974Z</time></trkpt><trkpt lat="39.54076362875491" lon="8.542142062238774"><ele>289.0</ele><time>2026-04-27T13:41:03.974Z</time></trkpt><trkpt lat="39.54070838818125" lon="8.542039051872399"><ele>289.0</ele><time>2026-04-27T13:41:04.974Z</time></trkpt><trkpt lat="39.54066547448755" lon="8.54195272632237"><ele>289.0</ele><time>2026-04-27T13:41:05.974Z</time></trkpt><trkpt lat="39.540634220500216" lon="8.541864244218193"><ele>289.0</ele><time>2026-04-27T13:41:06.974Z</time></trkpt><trkpt lat="39.540612854505575" lon="8.541781084345018"><ele>289.0</ele><time>2026-04-27T13:41:07.974Z</time></trkpt><trkpt lat="39.54064578961609" lon="8.541607185216991"><ele>290.0</ele><time>2026-04-27T13:41:09.974Z</time></trkpt><trkpt lat="39.540688413228494" lon="8.541505998675744"><ele>291.0</ele><time>2026-04-27T13:41:10.974Z</time></trkpt><trkpt lat="39.54072808487993" lon="8.541396154830323"><ele>292.0</ele><time>2026-04-27T13:41:11.974Z</time></trkpt><trkpt lat="39.54075550554362" lon="8.541280067451304"><ele>293.0</ele><time>2026-04-27T13:41:12.974Z</time></trkpt><trkpt lat="39.54076721581286" lon="8.541157696314732"><ele>294.0</ele><time>2026-04-27T13:41:13.974Z</time></trkpt><trkpt lat="39.54077941020107" lon="8.541033100333832"><ele>291.4</ele><time>2026-04-27T13:41:14.974Z</time></trkpt><trkpt lat="39.5408049476486" lon="8.54089989514329"><ele>288.79999999999995</ele><time>2026-04-27T13:41:15.974Z</time></trkpt><trkpt lat="39.540843120890166" lon="8.540770393158082"><ele>286.20000000000005</ele><time>2026-04-27T13:41:16.974Z</time></trkpt><trkpt lat="39.54090153493731" lon="8.540679893136604"><ele>283.6</ele><time>2026-04-27T13:41:17.974Z</time></trkpt><trkpt lat="39.540949298141506" lon="8.540574191773704"><ele>281.0</ele><time>2026-04-27T13:41:18.974Z</time></trkpt><trkpt lat="39.54099085292906" lon="8.54047652449856"><ele>281.00000000000006</ele><time>2026-04-27T13:41:19.974Z</time></trkpt><trkpt lat="39.54103247149082" lon="8.540395154977833"><ele>281.0</ele><time>2026-04-27T13:41:20.974Z</time></trkpt><trkpt lat="39.5410749771582" lon="8.540331632089497"><ele>281.0</ele><time>2026-04-27T13:41:21.974Z</time></trkpt><trkpt lat="39.54112119047966" lon="8.540259498800433"><ele>281.0</ele><time>2026-04-27T13:41:22.974Z</time></trkpt><trkpt lat="39.54119178950975" lon="8.54023291303159"><ele>281.0</ele><time>2026-04-27T13:41:23.974Z</time></trkpt><trkpt lat="39.541269423355445" lon="8.540210709944574"><ele>281.00000000000006</ele><time>2026-04-27T13:41:24.974Z</time></trkpt><trkpt lat="39.541347119326986" lon="8.540180410380163"><ele>281.0</ele><time>2026-04-27T13:41:25.974Z</time></trkpt><trkpt lat="39.54144281243312" lon="8.540100110548574"><ele>283.1666666666667</ele><time>2026-04-27T13:41:27.974Z</time></trkpt><trkpt lat="39.54149209695867" lon="8.539955756922536"><ele>285.33333333333337</ele><time>2026-04-27T13:41:29.974Z</time></trkpt><trkpt lat="39.541491933175855" lon="8.539853559932647"><ele>287.5</ele><time>2026-04-27T13:41:30.974Z</time></trkpt><trkpt lat="39.54146792395388" lon="8.539757699665145"><ele>289.6666666666667</ele><time>2026-04-27T13:41:31.974Z</time></trkpt><trkpt lat="39.5414171537771" lon="8.539687422143519"><ele>291.8333333333333</ele><time>2026-04-27T13:41:32.974Z</time></trkpt><trkpt lat="39.541345762884305" lon="8.539654036528782"><ele>294.0</ele><time>2026-04-27T13:41:33.974Z</time></trkpt><trkpt lat="39.54126958447271" lon="8.539619503147877"><ele>293.59999999999997</ele><time>2026-04-27T13:41:34.973Z</time></trkpt><trkpt lat="39.54118842104758" lon="8.539589725254409"><ele>293.2</ele><time>2026-04-27T13:41:35.973Z</time></trkpt><trkpt lat="39.54110216141055" lon="8.539560580699026"><ele>292.79999999999995</ele><time>2026-04-27T13:41:36.973Z</time></trkpt><trkpt lat="39.54101083162934" lon="8.539525344712231"><ele>292.4</ele><time>2026-04-27T13:41:37.973Z</time></trkpt><trkpt lat="39.54091561212451" lon="8.539496041942213"><ele>292.0</ele><time>2026-04-27T13:41:38.974Z</time></trkpt><trkpt lat="39.540815366285024" lon="8.539483011709697"><ele>292.0</ele><time>2026-04-27T13:41:39.974Z</time></trkpt><trkpt lat="39.540712770489854" lon="8.539482440869564"><ele>292.0</ele><time>2026-04-27T13:41:40.973Z</time></trkpt><trkpt lat="39.54060223457018" lon="8.53948296357612"><ele>292.0</ele><time>2026-04-27T13:41:41.973Z</time></trkpt><trkpt lat="39.54049816078658" lon="8.539483504412836"><ele>292.0</ele><time>2026-04-27T13:41:42.973Z</time></trkpt><trkpt lat="39.540397386932376" lon="8.539481547515305"><ele>292.0</ele><time>2026-04-27T13:41:43.973Z</time></trkpt><trkpt lat="39.54029356428984" lon="8.539468454958447"><ele>288.4</ele><time>2026-04-27T13:41:44.973Z</time></trkpt><trkpt lat="39.54018895282013" lon="8.53948800444618"><ele>284.79999999999995</ele><time>2026-04-27T13:41:45.973Z</time></trkpt><trkpt lat="39.54006568259552" lon="8.539488935252079"><ele>281.2</ele><time>2026-04-27T13:41:46.973Z</time></trkpt><trkpt lat="39.53999081500115" lon="8.539511617028829"><ele>277.59999999999997</ele><time>2026-04-27T13:41:48.973Z</time></trkpt><trkpt lat="39.53991011491884" lon="8.539479451994891"><ele>274.0</ele><time>2026-04-27T13:41:49.973Z</time></trkpt><trkpt lat="39.539843982639994" lon="8.53939557190284"><ele>274.0</ele><time>2026-04-27T13:41:50.973Z</time></trkpt><trkpt lat="39.53976606718424" lon="8.539316886197811"><ele>274.0</ele><time>2026-04-27T13:41:51.974Z</time></trkpt><trkpt lat="39.539685739271526" lon="8.539229954131184"><ele>274.0</ele><time>2026-04-27T13:41:52.974Z</time></trkpt><trkpt lat="39.539600136687206" lon="8.539145042628949"><ele>274.0</ele><time>2026-04-27T13:41:53.974Z</time></trkpt><trkpt lat="39.539509102351865" lon="8.539087894014632"><ele>274.0</ele><time>2026-04-27T13:41:54.974Z</time></trkpt><trkpt lat="39.53941479164873" lon="8.539052750512212"><ele>272.3333333333333</ele><time>2026-04-27T13:41:55.974Z</time></trkpt><trkpt lat="39.53933941693446" lon="8.53900002179451"><ele>270.66666666666663</ele><time>2026-04-27T13:41:56.974Z</time></trkpt><trkpt lat="39.53927961469113" lon="8.538941016292371"><ele>269.0</ele><time>2026-04-27T13:41:57.974Z</time></trkpt><trkpt lat="39.53924096159816" lon="8.538870452467766"><ele>267.3333333333333</ele><time>2026-04-27T13:41:58.974Z</time></trkpt><trkpt lat="39.53924112278312" lon="8.538786497352001"><ele>265.6666666666667</ele><time>2026-04-27T13:41:59.974Z</time></trkpt><trkpt lat="39.539308115539704" lon="8.538643534594835"><ele>264.0</ele><time>2026-04-27T13:42:01.974Z</time></trkpt><trkpt lat="39.53935877477529" lon="8.538532659243913"><ele>264.0</ele><time>2026-04-27T13:42:02.974Z</time></trkpt><trkpt lat="39.53938413014762" lon="8.538436047079898"><ele>264.0</ele><time>2026-04-27T13:42:03.974Z</time></trkpt><trkpt lat="39.53936234496613" lon="8.538287529958193"><ele>264.0</ele><time>2026-04-27T13:42:05.97Z</time></trkpt><trkpt lat="39.53930786785001" lon="8.538225707751296"><ele>264.0</ele><time>2026-04-27T13:42:06.969Z</time></trkpt><trkpt lat="39.539223409487484" lon="8.538214913403895"><ele>264.0</ele><time>2026-04-27T13:42:07.967Z</time></trkpt><trkpt lat="39.53915360780889" lon="8.538196032346438"><ele>264.0</ele><time>2026-04-27T13:42:08.965Z</time></trkpt><trkpt lat="39.53904282898142" lon="8.53820962374706"><ele>264.0</ele><time>2026-04-27T13:42:09.964Z</time></trkpt><trkpt lat="39.53896405667532" lon="8.53817414740102"><ele>264.0</ele><time>2026-04-27T13:42:10.962Z</time></trkpt><trkpt lat="39.53888703078198" lon="8.53813001444571"><ele>264.0</ele><time>2026-04-27T13:42:11.961Z</time></trkpt><trkpt lat="39.53882984149338" lon="8.538076111089103"><ele>264.0</ele><time>2026-04-27T13:42:12.96Z</time></trkpt><trkpt lat="39.538764249041115" lon="8.537929681327702"><ele>264.0</ele><time>2026-04-27T13:42:14.957Z</time></trkpt><trkpt lat="39.53875833440313" lon="8.537823826935359"><ele>265.4</ele><time>2026-04-27T13:42:15.956Z</time></trkpt><trkpt lat="39.53876693720102" lon="8.537708424304203"><ele>266.79999999999995</ele><time>2026-04-27T13:42:16.955Z</time></trkpt><trkpt lat="39.538769242566566" lon="8.537616180201294"><ele>268.20000000000005</ele><time>2026-04-27T13:42:17.954Z</time></trkpt><trkpt lat="39.538747831406766" lon="8.537507101656107"><ele>269.6</ele><time>2026-04-27T13:42:19.953Z</time></trkpt><trkpt lat="39.53863020577781" lon="8.537567993398"><ele>271.0</ele><time>2026-04-27T13:42:23.95Z</time></trkpt><trkpt lat="39.53854899810245" lon="8.537664773903005"><ele>269.0</ele><time>2026-04-27T13:42:25.949Z</time></trkpt><trkpt lat="39.53849578818078" lon="8.537722735031728"><ele>267.0</ele><time>2026-04-27T13:42:26.948Z</time></trkpt><trkpt lat="39.53844814678594" lon="8.537791342515906"><ele>265.0</ele><time>2026-04-27T13:42:27.948Z</time></trkpt><trkpt lat="39.53839113129448" lon="8.53784101574916"><ele>263.0</ele><time>2026-04-27T13:42:28.947Z</time></trkpt><trkpt lat="39.53832635774417" lon="8.537868006726105"><ele>261.0</ele><time>2026-04-27T13:42:29.947Z</time></trkpt><trkpt lat="39.53825063770934" lon="8.537855997293656"><ele>259.0</ele><time>2026-04-27T13:42:30.947Z</time></trkpt><trkpt lat="39.53819089275159" lon="8.537802845224828"><ele>257.0</ele><time>2026-04-27T13:42:31.946Z</time></trkpt><trkpt lat="39.53813942380154" lon="8.537716537917769"><ele>257.0</ele><time>2026-04-27T13:42:32.946Z</time></trkpt><trkpt lat="39.538098206849725" lon="8.537629433334862"><ele>257.0</ele><time>2026-04-27T13:42:33.946Z</time></trkpt><trkpt lat="39.53804819823723" lon="8.537529597244486"><ele>257.0</ele><time>2026-04-27T13:42:34.945Z</time></trkpt><trkpt lat="39.537990360977126" lon="8.53743350618255"><ele>257.0</ele><time>2026-04-27T13:42:35.945Z</time></trkpt><trkpt lat="39.5379414477727" lon="8.537347750786061"><ele>257.0</ele><time>2026-04-27T13:42:36.945Z</time></trkpt><trkpt lat="39.53789624721881" lon="8.537277022907917"><ele>257.0</ele><time>2026-04-27T13:42:37.944Z</time></trkpt><trkpt lat="39.537831148818796" lon="8.537192146273702"><ele>254.66666666666669</ele><time>2026-04-27T13:42:38.944Z</time></trkpt><trkpt lat="39.53777387994715" lon="8.537110965363492"><ele>252.33333333333334</ele><time>2026-04-27T13:42:39.944Z</time></trkpt><trkpt lat="39.53771348542011" lon="8.537029257779336"><ele>250.0</ele><time>2026-04-27T13:42:40.944Z</time></trkpt><trkpt lat="39.53765336763263" lon="8.536951332347616"><ele>247.66666666666669</ele><time>2026-04-27T13:42:41.944Z</time></trkpt><trkpt lat="39.53758390339329" lon="8.536867365364797"><ele>245.33333333333334</ele><time>2026-04-27T13:42:42.943Z</time></trkpt><trkpt lat="39.5375191713402" lon="8.536785691856403"><ele>243.0</ele><time>2026-04-27T13:42:43.943Z</time></trkpt><trkpt lat="39.53747555652808" lon="8.536702549235681"><ele>242.66666666666666</ele><time>2026-04-27T13:42:44.943Z</time></trkpt><trkpt lat="39.53745183023122" lon="8.536621513373328"><ele>242.33333333333331</ele><time>2026-04-27T13:42:45.943Z</time></trkpt><trkpt lat="39.53744438726066" lon="8.53653191417743"><ele>242.0</ele><time>2026-04-27T13:42:46.943Z</time></trkpt><trkpt lat="39.53745429658861" lon="8.536445789238268"><ele>241.66666666666666</ele><time>2026-04-27T13:42:47.943Z</time></trkpt><trkpt lat="39.537494121756815" lon="8.536355402428667"><ele>241.33333333333331</ele><time>2026-04-27T13:42:48.943Z</time></trkpt><trkpt lat="39.53754707197179" lon="8.53626747261069"><ele>241.0</ele><time>2026-04-27T13:42:49.943Z</time></trkpt><trkpt lat="39.537598174346925" lon="8.536170270488107"><ele>241.66666666666666</ele><time>2026-04-27T13:42:50.942Z</time></trkpt><trkpt lat="39.53765172841579" lon="8.53608546050941"><ele>242.33333333333331</ele><time>2026-04-27T13:42:51.942Z</time></trkpt><trkpt lat="39.537703249187224" lon="8.536015850416355"><ele>243.0</ele><time>2026-04-27T13:42:52.942Z</time></trkpt><trkpt lat="39.53775026602207" lon="8.535943497802476"><ele>243.66666666666669</ele><time>2026-04-27T13:42:53.942Z</time></trkpt><trkpt lat="39.537786901160906" lon="8.535869021513282"><ele>244.33333333333334</ele><time>2026-04-27T13:42:54.942Z</time></trkpt><trkpt lat="39.53777570967899" lon="8.535759819616143"><ele>245.0</ele><time>2026-04-27T13:42:56.942Z</time></trkpt><trkpt lat="39.5376847264527" lon="8.535701830624058"><ele>245.0</ele><time>2026-04-27T13:42:58.942Z</time></trkpt><trkpt lat="39.53754953278058" lon="8.535782410848547"><ele>245.0</ele><time>2026-04-27T13:43:00.942Z</time></trkpt><trkpt lat="39.53747596509032" lon="8.53585029709723"><ele>245.0</ele><time>2026-04-27T13:43:01.942Z</time></trkpt><trkpt lat="39.53737014787658" lon="8.535908955077995"><ele>245.0</ele><time>2026-04-27T13:43:02.942Z</time></trkpt><trkpt lat="39.53727959150606" lon="8.535995642169224"><ele>245.0</ele><time>2026-04-27T13:43:03.942Z</time></trkpt><trkpt lat="39.53720398240292" lon="8.536097647218737"><ele>245.0</ele><time>2026-04-27T13:43:04.942Z</time></trkpt><trkpt lat="39.53711051749055" lon="8.536181548561546"><ele>245.0</ele><time>2026-04-27T13:43:05.942Z</time></trkpt><trkpt lat="39.537033201464226" lon="8.536268820251427"><ele>245.0</ele><time>2026-04-27T13:43:06.941Z</time></trkpt><trkpt lat="39.53696631314362" lon="8.536336629066485"><ele>245.0</ele><time>2026-04-27T13:43:07.941Z</time></trkpt><trkpt lat="39.53690275896538" lon="8.536372636903165"><ele>244.00000000000003</ele><time>2026-04-27T13:43:08.941Z</time></trkpt><trkpt lat="39.53683150223462" lon="8.53638231700859"><ele>243.0</ele><time>2026-04-27T13:43:09.941Z</time></trkpt><trkpt lat="39.53675116506186" lon="8.53636088933743"><ele>242.0</ele><time>2026-04-27T13:43:10.941Z</time></trkpt><trkpt lat="39.53666432110535" lon="8.536313627295456"><ele>241.0</ele><time>2026-04-27T13:43:11.941Z</time></trkpt><trkpt lat="39.53660396053774" lon="8.53622688350506"><ele>240.00000000000003</ele><time>2026-04-27T13:43:12.941Z</time></trkpt><trkpt lat="39.5365389292254" lon="8.536138094156973"><ele>239.0</ele><time>2026-04-27T13:43:13.941Z</time></trkpt><trkpt lat="39.536479398519994" lon="8.536053723057996"><ele>239.00000000000003</ele><time>2026-04-27T13:43:14.941Z</time></trkpt><trkpt lat="39.536408991731484" lon="8.535987746486374"><ele>239.0</ele><time>2026-04-27T13:43:15.941Z</time></trkpt><trkpt lat="39.53633776754189" lon="8.535933601017655"><ele>239.0</ele><time>2026-04-27T13:43:16.941Z</time></trkpt><trkpt lat="39.53624608135578" lon="8.535895474065374"><ele>239.0</ele><time>2026-04-27T13:43:17.941Z</time></trkpt><trkpt lat="39.53616002977485" lon="8.53587020618829"><ele>239.00000000000003</ele><time>2026-04-27T13:43:18.941Z</time></trkpt><trkpt lat="39.53610096837435" lon="8.535839215403495"><ele>239.0</ele><time>2026-04-27T13:43:19.941Z</time></trkpt><trkpt lat="39.53603123424225" lon="8.535725405245769"><ele>234.66666666666669</ele><time>2026-04-27T13:43:21.941Z</time></trkpt><trkpt lat="39.536021499093515" lon="8.535635861311151"><ele>230.33333333333334</ele><time>2026-04-27T13:43:22.941Z</time></trkpt><trkpt lat="39.53605002307047" lon="8.535535267332337"><ele>226.0</ele><time>2026-04-27T13:43:23.941Z</time></trkpt><trkpt lat="39.53608521346197" lon="8.535437577967134"><ele>221.66666666666669</ele><time>2026-04-27T13:43:24.941Z</time></trkpt><trkpt lat="39.536102464864776" lon="8.535335902476598"><ele>217.33333333333334</ele><time>2026-04-27T13:43:25.941Z</time></trkpt><trkpt lat="39.53609391711721" lon="8.53521096775305"><ele>213.0</ele><time>2026-04-27T13:43:26.941Z</time></trkpt><trkpt lat="39.53608669619154" lon="8.535102510071198"><ele>213.0</ele><time>2026-04-27T13:43:27.941Z</time></trkpt><trkpt lat="39.53605629252513" lon="8.534969377770201"><ele>213.0</ele><time>2026-04-27T13:43:28.941Z</time></trkpt><trkpt lat="39.536019600571976" lon="8.534842754866393"><ele>213.0</ele><time>2026-04-27T13:43:29.941Z</time></trkpt><trkpt lat="39.53597116134559" lon="8.534727197977007"><ele>213.0</ele><time>2026-04-27T13:43:30.941Z</time></trkpt><trkpt lat="39.53591217439328" lon="8.534627841708623"><ele>213.0</ele><time>2026-04-27T13:43:31.941Z</time></trkpt><trkpt lat="39.535853719752055" lon="8.534551299915055"><ele>212.8</ele><time>2026-04-27T13:43:32.941Z</time></trkpt><trkpt lat="39.535810887433705" lon="8.534475727047552"><ele>212.60000000000002</ele><time>2026-04-27T13:43:33.941Z</time></trkpt><trkpt lat="39.53581426320101" lon="8.53430512485684"><ele>212.39999999999998</ele><time>2026-04-27T13:43:35.941Z</time></trkpt><trkpt lat="39.535851123563056" lon="8.534189525952653"><ele>212.2</ele><time>2026-04-27T13:43:36.941Z</time></trkpt><trkpt lat="39.53589729587633" lon="8.534059624753505"><ele>212.0</ele><time>2026-04-27T13:43:37.941Z</time></trkpt><trkpt lat="39.535950511116376" lon="8.533923286286377"><ele>212.0</ele><time>2026-04-27T13:43:38.941Z</time></trkpt><trkpt lat="39.53601850234877" lon="8.533804061181844"><ele>212.0</ele><time>2026-04-27T13:43:39.941Z</time></trkpt><trkpt lat="39.53607939324468" lon="8.533685277358455"><ele>212.0</ele><time>2026-04-27T13:43:40.94Z</time></trkpt><trkpt lat="39.53615025537534" lon="8.533576852771379"><ele>212.0</ele><time>2026-04-27T13:43:41.94Z</time></trkpt><trkpt lat="39.53622997621586" lon="8.533480287248091"><ele>212.0</ele><time>2026-04-27T13:43:42.94Z</time></trkpt><trkpt lat="39.536306268604655" lon="8.533387111905819"><ele>210.2</ele><time>2026-04-27T13:43:43.94Z</time></trkpt><trkpt lat="39.53634917123441" lon="8.533296660782858"><ele>208.39999999999998</ele><time>2026-04-27T13:43:44.94Z</time></trkpt><trkpt lat="39.536400857462" lon="8.533249935741354"><ele>206.60000000000002</ele><time>2026-04-27T13:43:45.94Z</time></trkpt><trkpt lat="39.536396518539085" lon="8.533111869378896"><ele>204.8</ele><time>2026-04-27T13:43:47.94Z</time></trkpt><trkpt lat="39.53633632176359" lon="8.533031804784342"><ele>203.0</ele><time>2026-04-27T13:43:49.94Z</time></trkpt><trkpt lat="39.53620808851557" lon="8.533024594099315"><ele>203.00000000000003</ele><time>2026-04-27T13:43:51.94Z</time></trkpt><trkpt lat="39.53612732781728" lon="8.533039653133514"><ele>203.0</ele><time>2026-04-27T13:43:52.939Z</time></trkpt><trkpt lat="39.536039471293805" lon="8.533064201333804"><ele>203.0</ele><time>2026-04-27T13:43:53.939Z</time></trkpt><trkpt lat="39.53596226471604" lon="8.533078699407174"><ele>203.0</ele><time>2026-04-27T13:43:54.939Z</time></trkpt><trkpt lat="39.53588659489547" lon="8.533061785629023"><ele>203.00000000000003</ele><time>2026-04-27T13:43:55.939Z</time></trkpt><trkpt lat="39.535822956848286" lon="8.53301404892607"><ele>203.0</ele><time>2026-04-27T13:43:56.939Z</time></trkpt><trkpt lat="39.535754696522424" lon="8.532944070865254"><ele>205.60000000000002</ele><time>2026-04-27T13:43:57.939Z</time></trkpt><trkpt lat="39.53568312095239" lon="8.532850874025206"><ele>208.20000000000002</ele><time>2026-04-27T13:43:58.939Z</time></trkpt><trkpt lat="39.535604196694095" lon="8.532770204261269"><ele>210.8</ele><time>2026-04-27T13:43:59.939Z</time></trkpt><trkpt lat="39.535519099297865" lon="8.532687127400482"><ele>213.4</ele><time>2026-04-27T13:44:00.939Z</time></trkpt><trkpt lat="39.53543815761703" lon="8.532598163884272"><ele>216.0</ele><time>2026-04-27T13:44:01.939Z</time></trkpt><trkpt lat="39.53536337430703" lon="8.532501477522928"><ele>211.20000000000002</ele><time>2026-04-27T13:44:02.939Z</time></trkpt><trkpt lat="39.53530120934615" lon="8.53239291725221"><ele>206.40000000000003</ele><time>2026-04-27T13:44:03.939Z</time></trkpt><trkpt lat="39.5352461603683" lon="8.53227618154234"><ele>201.6</ele><time>2026-04-27T13:44:04.939Z</time></trkpt><trkpt lat="39.53519953607989" lon="8.53215910904456"><ele>196.8</ele><time>2026-04-27T13:44:05.939Z</time></trkpt><trkpt lat="39.53515861033367" lon="8.532036278295216"><ele>192.0</ele><time>2026-04-27T13:44:06.939Z</time></trkpt><trkpt lat="39.53512914899151" lon="8.531902743504137"><ele>192.0</ele><time>2026-04-27T13:44:07.939Z</time></trkpt><trkpt lat="39.5351102989075" lon="8.531758295875171"><ele>192.0</ele><time>2026-04-27T13:44:08.939Z</time></trkpt><trkpt lat="39.53509097949748" lon="8.531608845257601"><ele>192.0</ele><time>2026-04-27T13:44:09.939Z</time></trkpt><trkpt lat="39.535091707666616" lon="8.531455750267334"><ele>192.0</ele><time>2026-04-27T13:44:10.939Z</time></trkpt><trkpt lat="39.53508350806183" lon="8.531312718227701"><ele>191.75</ele><time>2026-04-27T13:44:11.939Z</time></trkpt><trkpt lat="39.53506458780427" lon="8.531168623334626"><ele>191.5</ele><time>2026-04-27T13:44:12.939Z</time></trkpt><trkpt lat="39.53505046920334" lon="8.531016401759016"><ele>191.25</ele><time>2026-04-27T13:44:13.939Z</time></trkpt><trkpt lat="39.535027559549825" lon="8.53087649586902"><ele>191.0</ele><time>2026-04-27T13:44:14.939Z</time></trkpt><trkpt lat="39.53499952973536" lon="8.530731305261767"><ele>191.0</ele><time>2026-04-27T13:44:15.939Z</time></trkpt><trkpt lat="39.53496812242609" lon="8.53059110603269"><ele>191.0</ele><time>2026-04-27T13:44:16.939Z</time></trkpt><trkpt lat="39.534934712787724" lon="8.530474422235276"><ele>191.0</ele><time>2026-04-27T13:44:17.939Z</time></trkpt><trkpt lat="39.534909081583045" lon="8.530377833677816"><ele>191.0</ele><time>2026-04-27T13:44:18.939Z</time></trkpt><trkpt lat="39.53487974872349" lon="8.530280825026928"><ele>191.0</ele><time>2026-04-27T13:44:21.939Z</time></trkpt><trkpt lat="39.53477967166951" lon="8.530156953039077"><ele>190.5</ele><time>2026-04-27T13:44:23.939Z</time></trkpt><trkpt lat="39.534707108451364" lon="8.530107513297745"><ele>190.0</ele><time>2026-04-27T13:44:24.939Z</time></trkpt><trkpt lat="39.53463178220162" lon="8.53007832502463"><ele>189.5</ele><time>2026-04-27T13:44:25.939Z</time></trkpt><trkpt lat="39.53455675928697" lon="8.530061279262828"><ele>189.0</ele><time>2026-04-27T13:44:26.939Z</time></trkpt><trkpt lat="39.53449037638989" lon="8.53004792193007"><ele>188.5</ele><time>2026-04-27T13:44:27.939Z</time></trkpt><trkpt lat="39.53442144473578" lon="8.530043197292246"><ele>188.0</ele><time>2026-04-27T13:44:28.939Z</time></trkpt><trkpt lat="39.53433229156191" lon="8.529954822787088"><ele>187.0</ele><time>2026-04-27T13:44:30.94Z</time></trkpt><trkpt lat="39.53428642623355" lon="8.529822805313705"><ele>186.0</ele><time>2026-04-27T13:44:32.94Z</time></trkpt><trkpt lat="39.53430912818811" lon="8.52973929040934"><ele>185.0</ele><time>2026-04-27T13:44:33.94Z</time></trkpt><trkpt lat="39.534362279521005" lon="8.529672732994996"><ele>184.0</ele><time>2026-04-27T13:44:34.94Z</time></trkpt><trkpt lat="39.534421860403256" lon="8.529598621920762"><ele>183.0</ele><time>2026-04-27T13:44:35.94Z</time></trkpt><trkpt lat="39.5344489325919" lon="8.529505651588407"><ele>182.0</ele><time>2026-04-27T13:44:36.94Z</time></trkpt><trkpt lat="39.53447919039131" lon="8.529421350519971"><ele>181.8</ele><time>2026-04-27T13:44:37.94Z</time></trkpt><trkpt lat="39.534506574748185" lon="8.52934448099788"><ele>181.6</ele><time>2026-04-27T13:44:38.94Z</time></trkpt><trkpt lat="39.534477469194336" lon="8.529251140028048"><ele>181.4</ele><time>2026-04-27T13:44:39.94Z</time></trkpt><trkpt lat="39.53444511238981" lon="8.529140032827277"><ele>181.20000000000002</ele><time>2026-04-27T13:44:40.94Z</time></trkpt><trkpt lat="39.53440422360773" lon="8.529017935821278"><ele>181.0</ele><time>2026-04-27T13:44:41.94Z</time></trkpt><trkpt lat="39.53435541869975" lon="8.528885641408586"><ele>181.0</ele><time>2026-04-27T13:44:42.94Z</time></trkpt><trkpt lat="39.534309907457114" lon="8.528751367418034"><ele>181.0</ele><time>2026-04-27T13:44:43.94Z</time></trkpt><trkpt lat="39.53427067828532" lon="8.528608413880805"><ele>181.0</ele><time>2026-04-27T13:44:44.94Z</time></trkpt><trkpt lat="39.53422871118766" lon="8.528464873640392"><ele>181.0</ele><time>2026-04-27T13:44:45.94Z</time></trkpt><trkpt lat="39.53419083132707" lon="8.528315981947241"><ele>180.5</ele><time>2026-04-27T13:44:46.94Z</time></trkpt><trkpt lat="39.534157551280515" lon="8.528163469690753"><ele>180.0</ele><time>2026-04-27T13:44:47.94Z</time></trkpt><trkpt lat="39.53412124127381" lon="8.52800731348792"><ele>179.5</ele><time>2026-04-27T13:44:48.94Z</time></trkpt><trkpt lat="39.534073705736" lon="8.527859032026512"><ele>179.0</ele><time>2026-04-27T13:44:49.94Z</time></trkpt><trkpt lat="39.53402317060875" lon="8.52771179606302"><ele>179.0</ele><time>2026-04-27T13:44:50.94Z</time></trkpt><trkpt lat="39.533979529024236" lon="8.52755975551196"><ele>179.0</ele><time>2026-04-27T13:44:51.94Z</time></trkpt><trkpt lat="39.53394101300846" lon="8.52740845180742"><ele>179.0</ele><time>2026-04-27T13:44:52.94Z</time></trkpt><trkpt lat="39.533911320443956" lon="8.527255655956923"><ele>179.0</ele><time>2026-04-27T13:44:53.94Z</time></trkpt><trkpt lat="39.53387167680414" lon="8.527113483035027"><ele>177.75</ele><time>2026-04-27T13:44:54.94Z</time></trkpt><trkpt lat="39.53382983124663" lon="8.526959832267044"><ele>176.5</ele><time>2026-04-27T13:44:55.94Z</time></trkpt><trkpt lat="39.533778523088145" lon="8.526802502181836"><ele>175.25</ele><time>2026-04-27T13:44:56.94Z</time></trkpt><trkpt lat="39.53372563859496" lon="8.526641869263377"><ele>174.0</ele><time>2026-04-27T13:44:57.94Z</time></trkpt><trkpt lat="39.533672891576515" lon="8.526483843859136"><ele>174.0</ele><time>2026-04-27T13:44:58.94Z</time></trkpt><trkpt lat="39.533641533551624" lon="8.526317458621815"><ele>174.0</ele><time>2026-04-27T13:44:59.94Z</time></trkpt><trkpt lat="39.53359164292121" lon="8.526151351474159"><ele>174.0</ele><time>2026-04-27T13:45:00.94Z</time></trkpt><trkpt lat="39.53354774018005" lon="8.525987818480937"><ele>174.0</ele><time>2026-04-27T13:45:01.94Z</time></trkpt><trkpt lat="39.53350445411135" lon="8.525830547176204"><ele>172.75</ele><time>2026-04-27T13:45:02.94Z</time></trkpt><trkpt lat="39.53346173314769" lon="8.525666620440985"><ele>171.5</ele><time>2026-04-27T13:45:03.94Z</time></trkpt><trkpt lat="39.53341834137802" lon="8.52550380732622"><ele>170.25</ele><time>2026-04-27T13:45:04.94Z</time></trkpt><trkpt lat="39.53337153416552" lon="8.525339401302105"><ele>169.0</ele><time>2026-04-27T13:45:05.94Z</time></trkpt><trkpt lat="39.533323995702816" lon="8.525174599861794"><ele>168.75</ele><time>2026-04-27T13:45:06.94Z</time></trkpt><trkpt lat="39.533272545286316" lon="8.525008428585245"><ele>168.5</ele><time>2026-04-27T13:45:07.94Z</time></trkpt><trkpt lat="39.5332213773622" lon="8.524841332000124"><ele>168.25</ele><time>2026-04-27T13:45:08.94Z</time></trkpt><trkpt lat="39.53317041021779" lon="8.524676086843709"><ele>168.0</ele><time>2026-04-27T13:45:09.94Z</time></trkpt><trkpt lat="39.533118766964165" lon="8.524510435773749"><ele>169.75</ele><time>2026-04-27T13:45:10.94Z</time></trkpt><trkpt lat="39.53306495280449" lon="8.524345036360948"><ele>171.5</ele><time>2026-04-27T13:45:11.94Z</time></trkpt><trkpt lat="39.53303266051794" lon="8.52417233141945"><ele>173.25</ele><time>2026-04-27T13:45:12.94Z</time></trkpt><trkpt lat="39.53298425495842" lon="8.52400778792567"><ele>175.0</ele><time>2026-04-27T13:45:13.94Z</time></trkpt><trkpt lat="39.532933711122205" lon="8.523861411520144"><ele>172.6</ele><time>2026-04-27T13:45:14.94Z</time></trkpt><trkpt lat="39.53287592697279" lon="8.523726228300749"><ele>170.2</ele><time>2026-04-27T13:45:15.94Z</time></trkpt><trkpt lat="39.532812761204234" lon="8.523620400207562"><ele>167.8</ele><time>2026-04-27T13:45:16.94Z</time></trkpt><trkpt lat="39.53274333282725" lon="8.523525210587898"><ele>165.4</ele><time>2026-04-27T13:45:17.94Z</time></trkpt><trkpt lat="39.532671016069926" lon="8.523442740426571"><ele>163.0</ele><time>2026-04-27T13:45:18.94Z</time></trkpt><trkpt lat="39.53259943021432" lon="8.5233798097887"><ele>163.0</ele><time>2026-04-27T13:45:19.94Z</time></trkpt><trkpt lat="39.5325425857598" lon="8.523340885564982"><ele>163.0</ele><time>2026-04-27T13:45:21.94Z</time></trkpt><trkpt lat="39.532478311610035" lon="8.523256416625594"><ele>163.0</ele><time>2026-04-27T13:45:36.94Z</time></trkpt><trkpt lat="39.53238450954423" lon="8.523278841039813"><ele>163.0</ele><time>2026-04-27T13:45:37.94Z</time></trkpt><trkpt lat="39.53227894163721" lon="8.523156673218521"><ele>163.0</ele><time>2026-04-27T13:45:39.94Z</time></trkpt><trkpt lat="39.53219328650993" lon="8.523022671316918"><ele>163.0</ele><time>2026-04-27T13:45:41.94Z</time></trkpt><trkpt lat="39.53212789328319" lon="8.522914835630404"><ele>163.0</ele><time>2026-04-27T13:45:42.94Z</time></trkpt><trkpt lat="39.53209423748287" lon="8.52278931563767"><ele>163.0</ele><time>2026-04-27T13:45:43.94Z</time></trkpt><trkpt lat="39.53208258515649" lon="8.522666597299027"><ele>163.0</ele><time>2026-04-27T13:45:44.94Z</time></trkpt><trkpt lat="39.532079917265236" lon="8.52257140962803"><ele>163.0</ele><time>2026-04-27T13:45:45.94Z</time></trkpt><trkpt lat="39.532078974163234" lon="8.522479845307654"><ele>163.0</ele><time>2026-04-27T13:45:46.939Z</time></trkpt><trkpt lat="39.532079427921914" lon="8.522379230855657"><ele>162.66666666666669</ele><time>2026-04-27T13:45:47.939Z</time></trkpt><trkpt lat="39.53207991265122" lon="8.522271747856474"><ele>162.33333333333334</ele><time>2026-04-27T13:45:48.939Z</time></trkpt><trkpt lat="39.53207632565364" lon="8.522162809808941"><ele>162.0</ele><time>2026-04-27T13:45:49.939Z</time></trkpt><trkpt lat="39.53207110692558" lon="8.522058546393225"><ele>161.66666666666666</ele><time>2026-04-27T13:45:50.939Z</time></trkpt><trkpt lat="39.532063225537016" lon="8.52197177245613"><ele>161.33333333333331</ele><time>2026-04-27T13:45:51.939Z</time></trkpt><trkpt lat="39.532053440199185" lon="8.52187450081197"><ele>161.0</ele><time>2026-04-27T13:45:52.94Z</time></trkpt><trkpt lat="39.532031652116956" lon="8.52172380391016"><ele>158.66666666666666</ele><time>2026-04-27T13:45:54.938Z</time></trkpt><trkpt lat="39.53200967073855" lon="8.521627502856935"><ele>156.33333333333334</ele><time>2026-04-27T13:45:56.939Z</time></trkpt><trkpt lat="39.53197138163798" lon="8.521493056026875"><ele>154.0</ele><time>2026-04-27T13:45:59.939Z</time></trkpt><trkpt lat="39.5326006211974" lon="8.520784989994668"><ele>154.0</ele><time>2026-04-27T13:46:05.939Z</time></trkpt><trkpt lat="39.53264373938086" lon="8.5206913619183"><ele>154.0</ele><time>2026-04-27T13:46:06.939Z</time></trkpt><trkpt lat="39.53268538366514" lon="8.52060994080236"><ele>154.0</ele><time>2026-04-27T13:46:07.939Z</time></trkpt><trkpt lat="39.532717690864786" lon="8.520521897262023"><ele>154.0</ele><time>2026-04-27T13:46:08.939Z</time></trkpt><trkpt lat="39.53274212310117" lon="8.520430776729171"><ele>154.0</ele><time>2026-04-27T13:46:09.939Z</time></trkpt><trkpt lat="39.532764241785884" lon="8.520323720775684"><ele>154.0</ele><time>2026-04-27T13:46:10.939Z</time></trkpt><trkpt lat="39.532783597533395" lon="8.520200214718614"><ele>154.33333333333334</ele><time>2026-04-27T13:46:11.939Z</time></trkpt><trkpt lat="39.53280009416143" lon="8.520101447379343"><ele>154.66666666666669</ele><time>2026-04-27T13:46:12.939Z</time></trkpt><trkpt lat="39.53282208332632" lon="8.520007632087042"><ele>155.0</ele><time>2026-04-27T13:46:13.939Z</time></trkpt><trkpt lat="39.532825116472864" lon="8.519920934513014"><ele>155.33333333333334</ele><time>2026-04-27T13:46:14.939Z</time></trkpt><trkpt lat="39.53280215974122" lon="8.519756096924366"><ele>155.66666666666666</ele><time>2026-04-27T13:46:16.939Z</time></trkpt><trkpt lat="39.5328078043323" lon="8.519638725507283"><ele>156.0</ele><time>2026-04-27T13:46:17.939Z</time></trkpt><trkpt lat="39.532751550676124" lon="8.519482158924385"><ele>156.66666666666666</ele><time>2026-04-27T13:46:19.939Z</time></trkpt><trkpt lat="39.53273632653029" lon="8.51940108304951"><ele>157.33333333333334</ele><time>2026-04-27T13:46:20.939Z</time></trkpt><trkpt lat="39.5327249702997" lon="8.51930960496099"><ele>158.0</ele><time>2026-04-27T13:46:21.939Z</time></trkpt><trkpt lat="39.53271396054154" lon="8.519209512245784"><ele>158.66666666666669</ele><time>2026-04-27T13:46:22.94Z</time></trkpt><trkpt lat="39.532694117262736" lon="8.519114614146677"><ele>159.33333333333334</ele><time>2026-04-27T13:46:23.94Z</time></trkpt><trkpt lat="39.532685157490874" lon="8.518982952254074"><ele>160.0</ele><time>2026-04-27T13:46:25.94Z</time></trkpt><trkpt lat="39.53268878685257" lon="8.518895250915422"><ele>160.0</ele><time>2026-04-27T13:46:26.94Z</time></trkpt><trkpt lat="39.53273965469934" lon="8.518819414304001"><ele>160.0</ele><time>2026-04-27T13:46:27.94Z</time></trkpt><trkpt lat="39.53278209287916" lon="8.518746688197725"><ele>160.0</ele><time>2026-04-27T13:46:28.94Z</time></trkpt><trkpt lat="39.53283169217115" lon="8.518686067193505"><ele>160.0</ele><time>2026-04-27T13:46:29.94Z</time></trkpt><trkpt lat="39.53291710445271" lon="8.518596850905784"><ele>160.0</ele><time>2026-04-27T13:46:31.94Z</time></trkpt><trkpt lat="39.53297276199334" lon="8.518521417313966"><ele>160.0</ele><time>2026-04-27T13:46:33.94Z</time></trkpt><trkpt lat="39.53302563556103" lon="8.518415226353953"><ele>158.8</ele><time>2026-04-27T13:46:36.94Z</time></trkpt><trkpt lat="39.53306535781189" lon="8.518319792546254"><ele>157.6</ele><time>2026-04-27T13:46:38.94Z</time></trkpt><trkpt lat="39.53309938672893" lon="8.518186250546723"><ele>156.4</ele><time>2026-04-27T13:46:40.94Z</time></trkpt><trkpt lat="39.533087359301824" lon="8.518031248707574"><ele>155.2</ele><time>2026-04-27T13:46:42.94Z</time></trkpt><trkpt lat="39.53306754333971" lon="8.517949127134862"><ele>154.0</ele><time>2026-04-27T13:46:43.94Z</time></trkpt><trkpt lat="39.53304722787431" lon="8.517855771016452"><ele>152.66666666666669</ele><time>2026-04-27T13:46:44.94Z</time></trkpt><trkpt lat="39.53303127884671" lon="8.517768019920517"><ele>151.33333333333334</ele><time>2026-04-27T13:46:45.94Z</time></trkpt><trkpt lat="39.533052328404864" lon="8.51768391109648"><ele>150.0</ele><time>2026-04-27T13:46:47.94Z</time></trkpt><trkpt lat="39.533119202871106" lon="8.517643836434969"><ele>148.66666666666666</ele><time>2026-04-27T13:46:50.94Z</time></trkpt><trkpt lat="39.53320303015417" lon="8.517640108820313"><ele>147.33333333333331</ele><time>2026-04-27T13:46:53.94Z</time></trkpt><trkpt lat="39.53330462529024" lon="8.517659821819196"><ele>146.0</ele><time>2026-04-27T13:46:55.94Z</time></trkpt><trkpt lat="39.533370175933804" lon="8.517671963070967"><ele>146.0</ele><time>2026-04-27T13:46:56.94Z</time></trkpt><trkpt lat="39.53343660483965" lon="8.517673404028834"><ele>146.0</ele><time>2026-04-27T13:46:57.94Z</time></trkpt><trkpt lat="39.53354005851439" lon="8.517634124258143"><ele>146.0</ele><time>2026-04-27T13:46:59.94Z</time></trkpt><trkpt lat="39.53356291015978" lon="8.517535061584375"><ele>146.0</ele><time>2026-04-27T13:47:01.94Z</time></trkpt><trkpt lat="39.533558955961325" lon="8.517388807409304"><ele>146.0</ele><time>2026-04-27T13:47:03.94Z</time></trkpt><trkpt lat="39.53358615878794" lon="8.517249105013459"><ele>146.0</ele><time>2026-04-27T13:47:05.94Z</time></trkpt><trkpt lat="39.53358986061839" lon="8.517160145629871"><ele>146.0</ele><time>2026-04-27T13:47:06.94Z</time></trkpt><trkpt lat="39.533610654035435" lon="8.517075130836426"><ele>146.0</ele><time>2026-04-27T13:47:07.94Z</time></trkpt><trkpt lat="39.533652244634744" lon="8.516915159681936"><ele>146.0</ele><time>2026-04-27T13:47:09.94Z</time></trkpt><trkpt lat="39.53366790219185" lon="8.5168046782935"><ele>146.0</ele><time>2026-04-27T13:47:10.94Z</time></trkpt><trkpt lat="39.53368132036961" lon="8.516697066864241"><ele>146.0</ele><time>2026-04-27T13:47:11.94Z</time></trkpt><trkpt lat="39.53369860362219" lon="8.516584055719767"><ele>147.16666666666666</ele><time>2026-04-27T13:47:12.94Z</time></trkpt><trkpt lat="39.53372673378316" lon="8.516483996643602"><ele>148.33333333333331</ele><time>2026-04-27T13:47:13.94Z</time></trkpt><trkpt lat="39.5337586084069" lon="8.516388641539988"><ele>149.5</ele><time>2026-04-27T13:47:14.94Z</time></trkpt><trkpt lat="39.53378666432865" lon="8.516287687750838"><ele>150.66666666666666</ele><time>2026-04-27T13:47:15.94Z</time></trkpt><trkpt lat="39.53381027950765" lon="8.516194726934392"><ele>151.83333333333334</ele><time>2026-04-27T13:47:16.94Z</time></trkpt><trkpt lat="39.53383772998113" lon="8.516092748575641"><ele>153.0</ele><time>2026-04-27T13:47:17.94Z</time></trkpt><trkpt lat="39.533871432563345" lon="8.516012644756502"><ele>150.5</ele><time>2026-04-27T13:47:18.94Z</time></trkpt><trkpt lat="39.53391690711242" lon="8.515939311963738"><ele>148.0</ele><time>2026-04-27T13:47:19.94Z</time></trkpt><trkpt lat="39.53396573962816" lon="8.51586331948544"><ele>145.5</ele><time>2026-04-27T13:47:20.94Z</time></trkpt><trkpt lat="39.53401334750418" lon="8.515778214682271"><ele>143.0</ele><time>2026-04-27T13:47:21.94Z</time></trkpt><trkpt lat="39.53406294899038" lon="8.515700321849444"><ele>140.5</ele><time>2026-04-27T13:47:22.94Z</time></trkpt><trkpt lat="39.534111155004155" lon="8.515637319862947"><ele>138.0</ele><time>2026-04-27T13:47:23.94Z</time></trkpt><trkpt lat="39.534169025646385" lon="8.515569880915445"><ele>138.0</ele><time>2026-04-27T13:47:24.94Z</time></trkpt><trkpt lat="39.53422739138106" lon="8.515526102871021"><ele>138.0</ele><time>2026-04-27T13:47:25.94Z</time></trkpt><trkpt lat="39.534334510342546" lon="8.515501132584694"><ele>138.0</ele><time>2026-04-27T13:47:27.94Z</time></trkpt><trkpt lat="39.534399179704955" lon="8.51544902549313"><ele>138.0</ele><time>2026-04-27T13:47:31.94Z</time></trkpt><trkpt lat="39.534451672758514" lon="8.515389495122095"><ele>138.0</ele><time>2026-04-27T13:47:33.94Z</time></trkpt><trkpt lat="39.53454198866456" lon="8.515358851872621"><ele>138.0</ele><time>2026-04-27T13:47:36.94Z</time></trkpt><trkpt lat="39.534645614100945" lon="8.515321832506906"><ele>138.0</ele><time>2026-04-27T13:47:38.94Z</time></trkpt><trkpt lat="39.534687592879834" lon="8.515260775772544"><ele>138.0</ele><time>2026-04-27T13:47:40.94Z</time></trkpt><trkpt lat="39.53471515060245" lon="8.515170300128936"><ele>138.0</ele><time>2026-04-27T13:47:43.94Z</time></trkpt><trkpt lat="39.53470094258553" lon="8.515058028248372"><ele>138.0</ele><time>2026-04-27T13:47:45.94Z</time></trkpt><trkpt lat="39.53467058313658" lon="8.514951505220022"><ele>138.0</ele><time>2026-04-27T13:47:47.94Z</time></trkpt><trkpt lat="39.534636859648046" lon="8.514851373493096"><ele>138.0</ele><time>2026-04-27T13:47:49.94Z</time></trkpt><trkpt lat="39.53460035832908" lon="8.514717885846242"><ele>138.0</ele><time>2026-04-27T13:47:51.94Z</time></trkpt><trkpt lat="39.53461517239322" lon="8.514582635383588"><ele>138.0</ele><time>2026-04-27T13:47:53.939Z</time></trkpt><trkpt lat="39.53465492648014" lon="8.514503600344755"><ele>138.0</ele><time>2026-04-27T13:47:54.939Z</time></trkpt><trkpt lat="39.53470784304625" lon="8.514432901199122"><ele>138.0</ele><time>2026-04-27T13:47:55.939Z</time></trkpt><trkpt lat="39.534766532057226" lon="8.5143563415564"><ele>138.0</ele><time>2026-04-27T13:47:56.939Z</time></trkpt><trkpt lat="39.534833600223706" lon="8.514284806279942"><ele>138.0</ele><time>2026-04-27T13:47:57.939Z</time></trkpt><trkpt lat="39.53489060377184" lon="8.514247526604581"><ele>137.33333333333334</ele><time>2026-04-27T13:47:58.939Z</time></trkpt><trkpt lat="39.53495204089357" lon="8.514173400505955"><ele>136.66666666666666</ele><time>2026-04-27T13:48:00.939Z</time></trkpt><trkpt lat="39.53499112333475" lon="8.514077974732208"><ele>136.0</ele><time>2026-04-27T13:48:02.939Z</time></trkpt><trkpt lat="39.53503456520011" lon="8.513931674797874"><ele>135.33333333333331</ele><time>2026-04-27T13:48:04.939Z</time></trkpt><trkpt lat="39.535075172214654" lon="8.513856772705514"><ele>134.66666666666666</ele><time>2026-04-27T13:48:05.939Z</time></trkpt><trkpt lat="39.53511261128967" lon="8.51378906035257"><ele>134.0</ele><time>2026-04-27T13:48:06.939Z</time></trkpt><trkpt lat="39.53515234146847" lon="8.5136913826923"><ele>134.0</ele><time>2026-04-27T13:48:08.939Z</time></trkpt><trkpt lat="39.53519443861738" lon="8.513603907977016"><ele>134.0</ele><time>2026-04-27T13:48:11.939Z</time></trkpt><trkpt lat="39.53522547339449" lon="8.51352270852662"><ele>134.0</ele><time>2026-04-27T13:48:13.939Z</time></trkpt><trkpt lat="39.53528138198445" lon="8.513442952073984"><ele>134.0</ele><time>2026-04-27T13:48:15.939Z</time></trkpt><trkpt lat="39.53532215878172" lon="8.513349267667138"><ele>134.0</ele><time>2026-04-27T13:48:17.939Z</time></trkpt><trkpt lat="39.53536807632088" lon="8.513292134403791"><ele>134.0</ele><time>2026-04-27T13:48:18.939Z</time></trkpt><trkpt lat="39.53544744562484" lon="8.513178389812236"><ele>134.83333333333331</ele><time>2026-04-27T13:48:20.939Z</time></trkpt><trkpt lat="39.535487026398314" lon="8.513102105685443"><ele>135.66666666666666</ele><time>2026-04-27T13:48:21.939Z</time></trkpt><trkpt lat="39.53550384210183" lon="8.513019194644215"><ele>136.5</ele><time>2026-04-27T13:48:22.939Z</time></trkpt><trkpt lat="39.53552958506049" lon="8.512863263311443"><ele>137.33333333333334</ele><time>2026-04-27T13:48:24.939Z</time></trkpt><trkpt lat="39.53557396343057" lon="8.51277267802615"><ele>138.16666666666669</ele><time>2026-04-27T13:48:26.939Z</time></trkpt><trkpt lat="39.53562612638642" lon="8.51270685211741"><ele>139.0</ele><time>2026-04-27T13:48:29.939Z</time></trkpt><trkpt lat="39.53566521026191" lon="8.512576368753814"><ele>137.33333333333334</ele><time>2026-04-27T13:48:31.939Z</time></trkpt><trkpt lat="39.53569934505362" lon="8.512503300186328"><ele>135.66666666666669</ele><time>2026-04-27T13:48:33.939Z</time></trkpt><trkpt lat="39.53576599119352" lon="8.512417558994168"><ele>134.0</ele><time>2026-04-27T13:48:35.939Z</time></trkpt><trkpt lat="39.53584027617877" lon="8.51235023002976"><ele>132.33333333333334</ele><time>2026-04-27T13:48:37.939Z</time></trkpt><trkpt lat="39.535936593828936" lon="8.512349132682703"><ele>130.66666666666666</ele><time>2026-04-27T13:48:39.939Z</time></trkpt><trkpt lat="39.53600140618964" lon="8.5123098625686"><ele>129.0</ele><time>2026-04-27T13:48:41.939Z</time></trkpt><trkpt lat="39.536065641538606" lon="8.512293567387458"><ele>129.0</ele><time>2026-04-27T13:48:43.939Z</time></trkpt><trkpt lat="39.53614435269602" lon="8.512301538351172"><ele>129.0</ele><time>2026-04-27T13:48:45.939Z</time></trkpt><trkpt lat="39.536224966274304" lon="8.512304095637175"><ele>129.0</ele><time>2026-04-27T13:48:47.939Z</time></trkpt><trkpt lat="39.536298578949086" lon="8.512312936385106"><ele>129.0</ele><time>2026-04-27T13:48:49.939Z</time></trkpt><trkpt lat="39.53638556193148" lon="8.512310579874544"><ele>129.0</ele><time>2026-04-27T13:48:52.939Z</time></trkpt><trkpt lat="39.536483088900674" lon="8.512308563042575"><ele>129.0</ele><time>2026-04-27T13:48:55.939Z</time></trkpt><trkpt lat="39.536578510968354" lon="8.512286762897203"><ele>129.2</ele><time>2026-04-27T13:48:57.939Z</time></trkpt><trkpt lat="39.5366543532064" lon="8.512215484409882"><ele>129.4</ele><time>2026-04-27T13:48:59.939Z</time></trkpt><trkpt lat="39.5366836960282" lon="8.512106433922911"><ele>129.6</ele><time>2026-04-27T13:49:01.939Z</time></trkpt><trkpt lat="39.536714562422574" lon="8.511992790312057"><ele>129.8</ele><time>2026-04-27T13:49:03.939Z</time></trkpt><trkpt lat="39.536789515734526" lon="8.511916336860759"><ele>130.0</ele><time>2026-04-27T13:49:05.939Z</time></trkpt><trkpt lat="39.536855264368974" lon="8.511826125240223"><ele>129.25</ele><time>2026-04-27T13:49:07.939Z</time></trkpt><trkpt lat="39.53694460742308" lon="8.511722471472783"><ele>128.5</ele><time>2026-04-27T13:49:09.939Z</time></trkpt><trkpt lat="39.53701709512914" lon="8.511618578623823"><ele>127.75</ele><time>2026-04-27T13:49:11.939Z</time></trkpt><trkpt lat="39.53702016352876" lon="8.511474215448517"><ele>127.0</ele><time>2026-04-27T13:49:13.939Z</time></trkpt><trkpt lat="39.53702496829637" lon="8.511328417967034"><ele>125.66666666666667</ele><time>2026-04-27T13:49:15.939Z</time></trkpt><trkpt lat="39.53702517414916" lon="8.51122781454495"><ele>124.33333333333334</ele><time>2026-04-27T13:49:16.939Z</time></trkpt><trkpt lat="39.53702317856841" lon="8.511118085900826"><ele>123.0</ele><time>2026-04-27T13:49:17.939Z</time></trkpt><trkpt lat="39.537047117314486" lon="8.511014102940482"><ele>121.66666666666666</ele><time>2026-04-27T13:49:18.939Z</time></trkpt><trkpt lat="39.537085654756396" lon="8.510917926697502"><ele>120.33333333333333</ele><time>2026-04-27T13:49:19.939Z</time></trkpt><trkpt lat="39.53712540077223" lon="8.510817648560378"><ele>119.0</ele><time>2026-04-27T13:49:20.939Z</time></trkpt><trkpt lat="39.53714887082325" lon="8.51071189757477"><ele>118.99999999999999</ele><time>2026-04-27T13:49:21.939Z</time></trkpt><trkpt lat="39.53717989353141" lon="8.51059876856412"><ele>119.0</ele><time>2026-04-27T13:49:22.939Z</time></trkpt><trkpt lat="39.53720806084944" lon="8.51050983456123"><ele>119.0</ele><time>2026-04-27T13:49:23.939Z</time></trkpt><trkpt lat="39.53724194489581" lon="8.51042738691467"><ele>119.0</ele><time>2026-04-27T13:49:24.939Z</time></trkpt><trkpt lat="39.53729327103643" lon="8.51033118387718"><ele>118.99999999999999</ele><time>2026-04-27T13:49:25.939Z</time></trkpt><trkpt lat="39.53734263799633" lon="8.510245355653515"><ele>119.0</ele><time>2026-04-27T13:49:26.939Z</time></trkpt><trkpt lat="39.53739355507844" lon="8.510159577798785"><ele>119.49999999999999</ele><time>2026-04-27T13:49:27.939Z</time></trkpt><trkpt lat="39.537445936482115" lon="8.510087570252573"><ele>120.0</ele><time>2026-04-27T13:49:28.939Z</time></trkpt><trkpt lat="39.53749461999756" lon="8.509992766452275"><ele>120.5</ele><time>2026-04-27T13:49:29.939Z</time></trkpt><trkpt lat="39.537544269614095" lon="8.509908202457726"><ele>121.0</ele><time>2026-04-27T13:49:30.939Z</time></trkpt><trkpt lat="39.53759031388876" lon="8.50980324208057"><ele>121.49999999999999</ele><time>2026-04-27T13:49:31.939Z</time></trkpt><trkpt lat="39.537641436827506" lon="8.509717182822872"><ele>122.0</ele><time>2026-04-27T13:49:32.939Z</time></trkpt><trkpt lat="39.53771687355482" lon="8.509616649284714"><ele>122.49999999999999</ele><time>2026-04-27T13:49:34.94Z</time></trkpt><trkpt lat="39.53778261275987" lon="8.509492218982002"><ele>123.0</ele><time>2026-04-27T13:49:36.94Z</time></trkpt><trkpt lat="39.53782775709039" lon="8.509425906837185"><ele>123.5</ele><time>2026-04-27T13:49:37.94Z</time></trkpt><trkpt lat="39.5378733131691" lon="8.509350895897139"><ele>124.0</ele><time>2026-04-27T13:49:38.94Z</time></trkpt><trkpt lat="39.53790516809888" lon="8.509276403459078"><ele>124.49999999999999</ele><time>2026-04-27T13:49:39.94Z</time></trkpt><trkpt lat="39.53792833013904" lon="8.509193287870037"><ele>125.0</ele><time>2026-04-27T13:49:40.94Z</time></trkpt><trkpt lat="39.53795997753929" lon="8.509111671707307"><ele>123.14285714285714</ele><time>2026-04-27T13:49:41.94Z</time></trkpt><trkpt lat="39.537991139624474" lon="8.509031915408487"><ele>121.28571428571429</ele><time>2026-04-27T13:49:42.94Z</time></trkpt><trkpt lat="39.538000224940426" lon="8.508949723567053"><ele>119.42857142857143</ele><time>2026-04-27T13:49:43.94Z</time></trkpt><trkpt lat="39.53799847000423" lon="8.508851755767443"><ele>117.57142857142857</ele><time>2026-04-27T13:49:44.94Z</time></trkpt><trkpt lat="39.538005696803204" lon="8.508759651500172"><ele>115.71428571428572</ele><time>2026-04-27T13:49:45.94Z</time></trkpt><trkpt lat="39.538017834458415" lon="8.508673060248798"><ele>113.85714285714286</ele><time>2026-04-27T13:49:46.94Z</time></trkpt><trkpt lat="39.53804169604142" lon="8.508586079032305"><ele>112.0</ele><time>2026-04-27T13:49:47.94Z</time></trkpt><trkpt lat="39.53808093185446" lon="8.508503135408562"><ele>111.83333333333334</ele><time>2026-04-27T13:49:48.94Z</time></trkpt><trkpt lat="39.538121406509475" lon="8.508423302526026"><ele>111.66666666666667</ele><time>2026-04-27T13:49:49.94Z</time></trkpt><trkpt lat="39.53815453458473" lon="8.508329084924606"><ele>111.5</ele><time>2026-04-27T13:49:50.94Z</time></trkpt><trkpt lat="39.53816526081131" lon="8.508225498656143"><ele>111.33333333333334</ele><time>2026-04-27T13:49:51.94Z</time></trkpt><trkpt lat="39.53817229428252" lon="8.508125275203364"><ele>111.16666666666667</ele><time>2026-04-27T13:49:52.94Z</time></trkpt><trkpt lat="39.53818555192446" lon="8.50804051071696"><ele>111.0</ele><time>2026-04-27T13:49:53.94Z</time></trkpt><trkpt lat="39.53818365919616" lon="8.507909170118651"><ele>110.6</ele><time>2026-04-27T13:49:55.94Z</time></trkpt><trkpt lat="39.53821224670701" lon="8.507773618159092"><ele>110.19999999999999</ele><time>2026-04-27T13:49:57.94Z</time></trkpt><trkpt lat="39.53822665026761" lon="8.50762732039488"><ele>109.80000000000001</ele><time>2026-04-27T13:49:59.938Z</time></trkpt><trkpt lat="39.53824956999066" lon="8.507491628035696"><ele>109.4</ele><time>2026-04-27T13:50:01.938Z</time></trkpt><trkpt lat="39.53824634655166" lon="8.507409408183106"><ele>109.0</ele><time>2026-04-27T13:50:02.938Z</time></trkpt><trkpt lat="39.53817804805699" lon="8.507266233465517"><ele>109.0</ele><time>2026-04-27T13:50:04.938Z</time></trkpt><trkpt lat="39.53812456167731" lon="8.507200027860813"><ele>109.0</ele><time>2026-04-27T13:50:05.939Z</time></trkpt><trkpt lat="39.538084871948456" lon="8.50713014326989"><ele>109.0</ele><time>2026-04-27T13:50:06.939Z</time></trkpt><trkpt lat="39.538045589121865" lon="8.50705371272207"><ele>109.0</ele><time>2026-04-27T13:50:07.938Z</time></trkpt><trkpt lat="39.53800301549798" lon="8.50699299573911"><ele>109.0</ele><time>2026-04-27T13:50:08.939Z</time></trkpt><trkpt lat="39.53795419089419" lon="8.50692793295438"><ele>109.0</ele><time>2026-04-27T13:50:09.939Z</time></trkpt><trkpt lat="39.5379061025088" lon="8.50685694449991"><ele>109.0</ele><time>2026-04-27T13:50:10.938Z</time></trkpt><trkpt lat="39.537790400984086" lon="8.506770008068237"><ele>108.80000000000001</ele><time>2026-04-27T13:50:12.938Z</time></trkpt><trkpt lat="39.537730892937006" lon="8.506726438271073"><ele>108.60000000000001</ele><time>2026-04-27T13:50:13.938Z</time></trkpt><trkpt lat="39.53767538332726" lon="8.506683327167922"><ele>108.4</ele><time>2026-04-27T13:50:14.938Z</time></trkpt><trkpt lat="39.5375912412728" lon="8.506608874217116"><ele>108.2</ele><time>2026-04-27T13:50:16.938Z</time></trkpt><trkpt lat="39.53748921285343" lon="8.506542543696312"><ele>108.0</ele><time>2026-04-27T13:50:18.938Z</time></trkpt><trkpt lat="39.53737325679325" lon="8.506508915394878"><ele>108.0</ele><time>2026-04-27T13:50:20.938Z</time></trkpt><trkpt lat="39.53727446280675" lon="8.506462676237348"><ele>108.0</ele><time>2026-04-27T13:50:22.938Z</time></trkpt><trkpt lat="39.53725126737277" lon="8.506345674496496"><ele>108.0</ele><time>2026-04-27T13:50:24.938Z</time></trkpt><trkpt lat="39.537269490259725" lon="8.50624829045389"><ele>108.0</ele><time>2026-04-27T13:50:25.938Z</time></trkpt><trkpt lat="39.53728914383515" lon="8.506158329637664"><ele>108.0</ele><time>2026-04-27T13:50:26.938Z</time></trkpt><trkpt lat="39.537309209873335" lon="8.50607497974183"><ele>108.0</ele><time>2026-04-27T13:50:27.938Z</time></trkpt><trkpt lat="39.53733444919352" lon="8.505970937720887"><ele>106.66666666666667</ele><time>2026-04-27T13:50:28.938Z</time></trkpt><trkpt lat="39.53735712612535" lon="8.505870338386748"><ele>105.33333333333334</ele><time>2026-04-27T13:50:29.938Z</time></trkpt><trkpt lat="39.53736248043868" lon="8.505771900878342"><ele>104.0</ele><time>2026-04-27T13:50:30.939Z</time></trkpt><trkpt lat="39.53736311224867" lon="8.505662815187291"><ele>102.66666666666667</ele><time>2026-04-27T13:50:31.939Z</time></trkpt><trkpt lat="39.5373530109617" lon="8.50555461923447"><ele>101.33333333333334</ele><time>2026-04-27T13:50:32.939Z</time></trkpt><trkpt lat="39.537351502838405" lon="8.505444945268374"><ele>100.0</ele><time>2026-04-27T13:50:33.939Z</time></trkpt><trkpt lat="39.537352938209864" lon="8.505340334497866"><ele>99.4</ele><time>2026-04-27T13:50:34.939Z</time></trkpt><trkpt lat="39.537377702005074" lon="8.505233974570226"><ele>98.8</ele><time>2026-04-27T13:50:35.939Z</time></trkpt><trkpt lat="39.53741943946671" lon="8.505139596513088"><ele>98.19999999999999</ele><time>2026-04-27T13:50:36.939Z</time></trkpt><trkpt lat="39.53747444963144" lon="8.505042896419845"><ele>97.6</ele><time>2026-04-27T13:50:37.939Z</time></trkpt><trkpt lat="39.53752931313659" lon="8.504946775359391"><ele>97.0</ele><time>2026-04-27T13:50:38.939Z</time></trkpt><trkpt lat="39.53757217483492" lon="8.504835900877053"><ele>97.0</ele><time>2026-04-27T13:50:39.939Z</time></trkpt><trkpt lat="39.537593139331264" lon="8.504721901639334"><ele>97.0</ele><time>2026-04-27T13:50:40.939Z</time></trkpt><trkpt lat="39.53760441562256" lon="8.504614657996683"><ele>97.0</ele><time>2026-04-27T13:50:41.939Z</time></trkpt><trkpt lat="39.53760998755038" lon="8.504507611063937"><ele>97.0</ele><time>2026-04-27T13:50:42.939Z</time></trkpt><trkpt lat="39.53761767701351" lon="8.504418528318402"><ele>97.0</ele><time>2026-04-27T13:50:43.939Z</time></trkpt><trkpt lat="39.53758723464201" lon="8.50424595807945"><ele>97.0</ele><time>2026-04-27T13:50:45.939Z</time></trkpt><trkpt lat="39.537542593166435" lon="8.5041246745738"><ele>97.0</ele><time>2026-04-27T13:50:46.939Z</time></trkpt><trkpt lat="39.537517294200505" lon="8.504001326498077"><ele>97.0</ele><time>2026-04-27T13:50:47.939Z</time></trkpt><trkpt lat="39.537498564804665" lon="8.503887897042398"><ele>97.0</ele><time>2026-04-27T13:50:48.939Z</time></trkpt><trkpt lat="39.53747590162603" lon="8.503767673938215"><ele>97.0</ele><time>2026-04-27T13:50:49.939Z</time></trkpt><trkpt lat="39.53745239124368" lon="8.503657599124706"><ele>97.0</ele><time>2026-04-27T13:50:50.939Z</time></trkpt><trkpt lat="39.53741386390908" lon="8.503524764633804"><ele>97.0</ele><time>2026-04-27T13:50:51.939Z</time></trkpt><trkpt lat="39.53738732644531" lon="8.50339695553068"><ele>97.0</ele><time>2026-04-27T13:50:52.939Z</time></trkpt><trkpt lat="39.53736493889771" lon="8.503275294565983"><ele>97.0</ele><time>2026-04-27T13:50:53.939Z</time></trkpt><trkpt lat="39.53734467428203" lon="8.503163272389216"><ele>97.0</ele><time>2026-04-27T13:50:54.939Z</time></trkpt><trkpt lat="39.53732145382465" lon="8.50306692999482"><ele>97.00000000000001</ele><time>2026-04-27T13:50:55.939Z</time></trkpt><trkpt lat="39.53728872939196" lon="8.502985674135182"><ele>97.0</ele><time>2026-04-27T13:50:56.939Z</time></trkpt><trkpt lat="39.537247829286784" lon="8.5028978546887"><ele>97.0</ele><time>2026-04-27T13:50:57.939Z</time></trkpt><trkpt lat="39.537236271967906" lon="8.502802191007348"><ele>97.0</ele><time>2026-04-27T13:50:58.939Z</time></trkpt><trkpt lat="39.537226155160724" lon="8.502703040829228"><ele>97.00000000000001</ele><time>2026-04-27T13:50:59.939Z</time></trkpt><trkpt lat="39.53721541385467" lon="8.502604940663907"><ele>97.0</ele><time>2026-04-27T13:51:00.939Z</time></trkpt><trkpt lat="39.53718624912315" lon="8.502452011713812"><ele>97.00000000000001</ele><time>2026-04-27T13:51:02.939Z</time></trkpt><trkpt lat="39.53715591763761" lon="8.502346919668648"><ele>97.0</ele><time>2026-04-27T13:51:03.939Z</time></trkpt><trkpt lat="39.53713915799128" lon="8.5022445812642"><ele>97.0</ele><time>2026-04-27T13:51:04.939Z</time></trkpt><trkpt lat="39.5371179442935" lon="8.502149897726358"><ele>97.0</ele><time>2026-04-27T13:51:05.939Z</time></trkpt><trkpt lat="39.537081992678125" lon="8.502080847903446"><ele>97.00000000000001</ele><time>2026-04-27T13:51:06.939Z</time></trkpt><trkpt lat="39.537051104051365" lon="8.501993185823588"><ele>97.0</ele><time>2026-04-27T13:51:07.939Z</time></trkpt><trkpt lat="39.53704477772751" lon="8.501828999446564"><ele>97.00000000000001</ele><time>2026-04-27T13:51:09.939Z</time></trkpt><trkpt lat="39.53707168874558" lon="8.50174976271244"><ele>97.0</ele><time>2026-04-27T13:51:10.939Z</time></trkpt><trkpt lat="39.537093689619496" lon="8.50166220190082"><ele>97.0</ele><time>2026-04-27T13:51:11.939Z</time></trkpt><trkpt lat="39.53713158790985" lon="8.501563579263202"><ele>97.0</ele><time>2026-04-27T13:51:12.939Z</time></trkpt><trkpt lat="39.53717017562263" lon="8.501461929480785"><ele>97.00000000000001</ele><time>2026-04-27T13:51:13.939Z</time></trkpt><trkpt lat="39.53721677293312" lon="8.50134898264848"><ele>97.0</ele><time>2026-04-27T13:51:14.939Z</time></trkpt><trkpt lat="39.53725613595046" lon="8.501229891172494"><ele>97.00000000000001</ele><time>2026-04-27T13:51:15.939Z</time></trkpt><trkpt lat="39.537284976545536" lon="8.501146505285638"><ele>97.0</ele><time>2026-04-27T13:51:16.939Z</time></trkpt><trkpt lat="39.53735786034334" lon="8.501058305572329"><ele>97.0</ele><time>2026-04-27T13:51:18.939Z</time></trkpt><trkpt lat="39.53741685337061" lon="8.50100204178643"><ele>97.0</ele><time>2026-04-27T13:51:19.939Z</time></trkpt><trkpt lat="39.53747683058455" lon="8.500940316517129"><ele>97.00000000000001</ele><time>2026-04-27T13:51:20.939Z</time></trkpt><trkpt lat="39.537549172113316" lon="8.50085518177522"><ele>97.0</ele><time>2026-04-27T13:51:21.939Z</time></trkpt><trkpt lat="39.5376139532486" lon="8.50078529085736"><ele>97.0</ele><time>2026-04-27T13:51:22.939Z</time></trkpt><trkpt lat="39.53771587950328" lon="8.500688798378281"><ele>97.0</ele><time>2026-04-27T13:51:24.939Z</time></trkpt><trkpt lat="39.537790532727634" lon="8.500670099296766"><ele>97.0</ele><time>2026-04-27T13:51:25.939Z</time></trkpt><trkpt lat="39.53786760200917" lon="8.500638491440082"><ele>97.0</ele><time>2026-04-27T13:51:26.939Z</time></trkpt><trkpt lat="39.53792947506062" lon="8.500582763792808"><ele>97.0</ele><time>2026-04-27T13:51:27.939Z</time></trkpt><trkpt lat="39.537987248204594" lon="8.500489193824738"><ele>97.16666666666667</ele><time>2026-04-27T13:51:28.939Z</time></trkpt><trkpt lat="39.53804249244965" lon="8.500389613382884"><ele>97.33333333333334</ele><time>2026-04-27T13:51:29.939Z</time></trkpt><trkpt lat="39.538091639384035" lon="8.500289796877603"><ele>97.5</ele><time>2026-04-27T13:51:30.939Z</time></trkpt><trkpt lat="39.538142277667255" lon="8.500208248880842"><ele>97.66666666666666</ele><time>2026-04-27T13:51:31.939Z</time></trkpt><trkpt lat="39.53819270932002" lon="8.500136070984468"><ele>97.83333333333333</ele><time>2026-04-27T13:51:32.939Z</time></trkpt><trkpt lat="39.53824252008718" lon="8.500060155753335"><ele>98.0</ele><time>2026-04-27T13:51:33.939Z</time></trkpt><trkpt lat="39.538281279535504" lon="8.49998240569864"><ele>97.99999999999999</ele><time>2026-04-27T13:51:34.939Z</time></trkpt><trkpt lat="39.538316762995045" lon="8.499906118180816"><ele>98.0</ele><time>2026-04-27T13:51:35.939Z</time></trkpt><trkpt lat="39.5383468950338" lon="8.499820343320009"><ele>98.0</ele><time>2026-04-27T13:51:36.939Z</time></trkpt><trkpt lat="39.53838435896543" lon="8.499712478673462"><ele>98.0</ele><time>2026-04-27T13:51:37.939Z</time></trkpt><trkpt lat="39.53842140655875" lon="8.49960599490274"><ele>97.99999999999999</ele><time>2026-04-27T13:51:38.939Z</time></trkpt><trkpt lat="39.53845465211527" lon="8.499484617583036"><ele>98.0</ele><time>2026-04-27T13:51:39.939Z</time></trkpt><trkpt lat="39.53848732954973" lon="8.49938788597819"><ele>97.49999999999999</ele><time>2026-04-27T13:51:40.939Z</time></trkpt><trkpt lat="39.53852571401945" lon="8.499311506679526"><ele>97.0</ele><time>2026-04-27T13:51:41.939Z</time></trkpt><trkpt lat="39.538560641912085" lon="8.499232368963876"><ele>96.5</ele><time>2026-04-27T13:51:42.939Z</time></trkpt><trkpt lat="39.53857926205881" lon="8.49913254014465"><ele>96.0</ele><time>2026-04-27T13:51:43.939Z</time></trkpt><trkpt lat="39.538575053943404" lon="8.499015736310001"><ele>95.5</ele><time>2026-04-27T13:51:44.939Z</time></trkpt><trkpt lat="39.538565391267724" lon="8.498916811249224"><ele>95.0</ele><time>2026-04-27T13:51:45.939Z</time></trkpt><trkpt lat="39.53853975009239" lon="8.498826114268592"><ele>94.33333333333334</ele><time>2026-04-27T13:51:46.939Z</time></trkpt><trkpt lat="39.53849720766066" lon="8.498721478937421"><ele>93.66666666666667</ele><time>2026-04-27T13:51:47.939Z</time></trkpt><trkpt lat="39.538433669983895" lon="8.49863190852179"><ele>93.0</ele><time>2026-04-27T13:51:48.939Z</time></trkpt><trkpt lat="39.53837408729757" lon="8.498589911155433"><ele>92.33333333333333</ele><time>2026-04-27T13:51:49.939Z</time></trkpt><trkpt lat="39.53828718712114" lon="8.498518065545856"><ele>91.66666666666666</ele><time>2026-04-27T13:51:51.939Z</time></trkpt><trkpt lat="39.53823989979617" lon="8.498451379539903"><ele>91.0</ele><time>2026-04-27T13:51:53.939Z</time></trkpt><trkpt lat="39.53815442671631" lon="8.498395577240048"><ele>91.0</ele><time>2026-04-27T13:51:55.939Z</time></trkpt><trkpt lat="39.5380848619335" lon="8.498385277182663"><ele>91.0</ele><time>2026-04-27T13:51:56.939Z</time></trkpt><trkpt lat="39.53801207069488" lon="8.498382858139216"><ele>91.0</ele><time>2026-04-27T13:51:57.939Z</time></trkpt><trkpt lat="39.537900912874065" lon="8.498370318615548"><ele>91.0</ele><time>2026-04-27T13:51:59.939Z</time></trkpt><trkpt lat="39.53782737270348" lon="8.498244699086039"><ele>91.0</ele><time>2026-04-27T13:52:01.939Z</time></trkpt><trkpt lat="39.537769714861746" lon="8.498161941852208"><ele>91.66666666666666</ele><time>2026-04-27T13:52:03.939Z</time></trkpt><trkpt lat="39.537728324787736" lon="8.498071920585256"><ele>92.33333333333333</ele><time>2026-04-27T13:52:05.938Z</time></trkpt><trkpt lat="39.5377219313211" lon="8.497990441927033"><ele>93.0</ele><time>2026-04-27T13:52:07.939Z</time></trkpt><trkpt lat="39.53773338513357" lon="8.497892738289192"><ele>93.66666666666667</ele><time>2026-04-27T13:52:09.938Z</time></trkpt><trkpt lat="39.53776543697129" lon="8.497761386895155"><ele>94.33333333333334</ele><time>2026-04-27T13:52:11.938Z</time></trkpt><trkpt lat="39.53783663297659" lon="8.497631551413278"><ele>95.0</ele><time>2026-04-27T13:52:13.939Z</time></trkpt><trkpt lat="39.537879939987086" lon="8.49755072517671"><ele>94.0</ele><time>2026-04-27T13:52:14.938Z</time></trkpt><trkpt lat="39.53793455637698" lon="8.497482086733429"><ele>93.0</ele><time>2026-04-27T13:52:15.938Z</time></trkpt><trkpt lat="39.53799295792159" lon="8.497380503442555"><ele>92.0</ele><time>2026-04-27T13:52:16.938Z</time></trkpt><trkpt lat="39.5380429936497" lon="8.497292346618565"><ele>91.0</ele><time>2026-04-27T13:52:17.939Z</time></trkpt><trkpt lat="39.53808276995651" lon="8.497207328014667"><ele>90.0</ele><time>2026-04-27T13:52:18.939Z</time></trkpt><trkpt lat="39.53811215100201" lon="8.497129676498812"><ele>89.0</ele><time>2026-04-27T13:52:19.939Z</time></trkpt><trkpt lat="39.538151528158586" lon="8.497054120328189"><ele>88.33333333333334</ele><time>2026-04-27T13:52:20.939Z</time></trkpt><trkpt lat="39.53817821638448" lon="8.496969689013348"><ele>87.66666666666667</ele><time>2026-04-27T13:52:21.939Z</time></trkpt><trkpt lat="39.538198326131706" lon="8.49686901627312"><ele>87.0</ele><time>2026-04-27T13:52:22.939Z</time></trkpt><trkpt lat="39.53821613088143" lon="8.496768957756274"><ele>86.33333333333333</ele><time>2026-04-27T13:52:23.939Z</time></trkpt><trkpt lat="39.53822216587064" lon="8.496681316497815"><ele>85.66666666666666</ele><time>2026-04-27T13:52:24.939Z</time></trkpt><trkpt lat="39.538195101198205" lon="8.49651833709177"><ele>85.0</ele><time>2026-04-27T13:52:26.939Z</time></trkpt><trkpt lat="39.53817309538811" lon="8.496429624700383"><ele>85.0</ele><time>2026-04-27T13:52:27.939Z</time></trkpt><trkpt lat="39.53813760990178" lon="8.496341416948624"><ele>85.0</ele><time>2026-04-27T13:52:28.939Z</time></trkpt><trkpt lat="39.53810791107688" lon="8.496265630121927"><ele>85.0</ele><time>2026-04-27T13:52:29.939Z</time></trkpt><trkpt lat="39.53807914092377" lon="8.496135636710472"><ele>85.0</ele><time>2026-04-27T13:52:31.939Z</time></trkpt><trkpt lat="39.53806550265805" lon="8.49603750494736"><ele>85.0</ele><time>2026-04-27T13:52:34.939Z</time></trkpt><trkpt lat="39.538046914738636" lon="8.495935626269361"><ele>85.0</ele><time>2026-04-27T13:52:36.939Z</time></trkpt><trkpt lat="39.538050442306435" lon="8.495790713404178"><ele>83.83333333333333</ele><time>2026-04-27T13:52:38.939Z</time></trkpt><trkpt lat="39.53811005362901" lon="8.495749802205268"><ele>82.66666666666666</ele><time>2026-04-27T13:52:40.939Z</time></trkpt><trkpt lat="39.53818842040865" lon="8.495701010308908"><ele>81.5</ele><time>2026-04-27T13:52:42.939Z</time></trkpt><trkpt lat="39.53826728693806" lon="8.495624024291525"><ele>80.33333333333333</ele><time>2026-04-27T13:52:44.939Z</time></trkpt><trkpt lat="39.53833938795611" lon="8.495570281745382"><ele>79.16666666666667</ele><time>2026-04-27T13:52:46.939Z</time></trkpt><trkpt lat="39.53841734050358" lon="8.495536297013825"><ele>78.0</ele><time>2026-04-27T13:52:48.939Z</time></trkpt><trkpt lat="39.53848516498682" lon="8.495490639752104"><ele>78.0</ele><time>2026-04-27T13:52:50.939Z</time></trkpt><trkpt lat="39.53855664642507" lon="8.495426276871498"><ele>78.0</ele><time>2026-04-27T13:52:52.939Z</time></trkpt><trkpt lat="39.53861693162389" lon="8.495305804577102"><ele>78.0</ele><time>2026-04-27T13:52:54.939Z</time></trkpt><trkpt lat="39.538622781279116" lon="8.495181205575618"><ele>78.0</ele><time>2026-04-27T13:52:56.939Z</time></trkpt><trkpt lat="39.5385446480279" lon="8.495041688681804"><ele>78.0</ele><time>2026-04-27T13:52:58.939Z</time></trkpt><trkpt lat="39.53850636160946" lon="8.494967898013867"><ele>77.6</ele><time>2026-04-27T13:52:59.939Z</time></trkpt><trkpt lat="39.53843389235492" lon="8.494848475121913"><ele>77.19999999999999</ele><time>2026-04-27T13:53:01.939Z</time></trkpt><trkpt lat="39.53834672685695" lon="8.49479613978069"><ele>76.8</ele><time>2026-04-27T13:53:03.939Z</time></trkpt><trkpt lat="39.53826924431728" lon="8.49476450437064"><ele>76.39999999999999</ele><time>2026-04-27T13:53:05.939Z</time></trkpt><trkpt lat="39.538187492150215" lon="8.494706832135732"><ele>76.0</ele><time>2026-04-27T13:53:07.939Z</time></trkpt><trkpt lat="39.53812377394841" lon="8.494657248758504"><ele>76.0</ele><time>2026-04-27T13:53:09.939Z</time></trkpt><trkpt lat="39.538065046949605" lon="8.494593187446238"><ele>76.0</ele><time>2026-04-27T13:53:11.939Z</time></trkpt><trkpt lat="39.53799144618265" lon="8.494492497034281"><ele>76.0</ele><time>2026-04-27T13:53:13.939Z</time></trkpt><trkpt lat="39.53796310748939" lon="8.49440610759125"><ele>76.0</ele><time>2026-04-27T13:53:14.939Z</time></trkpt><trkpt lat="39.53796283127701" lon="8.494249231864003"><ele>76.0</ele><time>2026-04-27T13:53:16.939Z</time></trkpt><trkpt lat="39.537946052086234" lon="8.494125791783803"><ele>77.4</ele><time>2026-04-27T13:53:18.939Z</time></trkpt><trkpt lat="39.537910028741344" lon="8.494034966526405"><ele>78.8</ele><time>2026-04-27T13:53:20.939Z</time></trkpt><trkpt lat="39.53787319072554" lon="8.493927123433018"><ele>80.2</ele><time>2026-04-27T13:53:22.939Z</time></trkpt><trkpt lat="39.53784125264924" lon="8.493821941490216"><ele>81.60000000000001</ele><time>2026-04-27T13:53:24.939Z</time></trkpt><trkpt lat="39.53779218106635" lon="8.493704188906626"><ele>83.0</ele><time>2026-04-27T13:53:26.939Z</time></trkpt><trkpt lat="39.53775053734588" lon="8.493578410037241"><ele>83.0</ele><time>2026-04-27T13:53:28.939Z</time></trkpt><trkpt lat="39.537736929742636" lon="8.493443183950589"><ele>83.0</ele><time>2026-04-27T13:53:30.939Z</time></trkpt><trkpt lat="39.53772886299798" lon="8.493354453270351"><ele>83.0</ele><time>2026-04-27T13:53:31.939Z</time></trkpt><trkpt lat="39.53772319917667" lon="8.49327165383305"><ele>83.0</ele><time>2026-04-27T13:53:32.939Z</time></trkpt><trkpt lat="39.53772982561554" lon="8.493183256664969"><ele>83.0</ele><time>2026-04-27T13:53:33.939Z</time></trkpt><trkpt lat="39.53776090600067" lon="8.493023884473963"><ele>83.0</ele><time>2026-04-27T13:53:35.939Z</time></trkpt><trkpt lat="39.53778564844023" lon="8.492938544440094"><ele>82.33333333333334</ele><time>2026-04-27T13:53:36.939Z</time></trkpt><trkpt lat="39.537802373840385" lon="8.492849168928501"><ele>81.66666666666667</ele><time>2026-04-27T13:53:37.939Z</time></trkpt><trkpt lat="39.537818284148315" lon="8.492767663717524"><ele>81.0</ele><time>2026-04-27T13:53:38.939Z</time></trkpt><trkpt lat="39.53784744282023" lon="8.492669181795284"><ele>80.33333333333333</ele><time>2026-04-27T13:53:39.939Z</time></trkpt><trkpt lat="39.53786320728305" lon="8.492565461976906"><ele>79.66666666666666</ele><time>2026-04-27T13:53:40.939Z</time></trkpt><trkpt lat="39.537868223652154" lon="8.492465833969705"><ele>79.0</ele><time>2026-04-27T13:53:41.939Z</time></trkpt><trkpt lat="39.537853859195565" lon="8.492367817978561"><ele>79.0</ele><time>2026-04-27T13:53:42.939Z</time></trkpt><trkpt lat="39.53782617111736" lon="8.492261588906553"><ele>79.0</ele><time>2026-04-27T13:53:43.939Z</time></trkpt><trkpt lat="39.53779951016714" lon="8.492140253117125"><ele>79.0</ele><time>2026-04-27T13:53:44.939Z</time></trkpt><trkpt lat="39.537767206560964" lon="8.492021999036403"><ele>79.0</ele><time>2026-04-27T13:53:45.939Z</time></trkpt><trkpt lat="39.53773333298971" lon="8.491917053242142"><ele>79.0</ele><time>2026-04-27T13:53:46.939Z</time></trkpt><trkpt lat="39.53768899330496" lon="8.491822519051086"><ele>77.0</ele><time>2026-04-27T13:53:47.939Z</time></trkpt><trkpt lat="39.53764238888372" lon="8.491737743974367"><ele>75.0</ele><time>2026-04-27T13:53:48.939Z</time></trkpt><trkpt lat="39.537591952077626" lon="8.491680801418726"><ele>73.0</ele><time>2026-04-27T13:53:49.939Z</time></trkpt><trkpt lat="39.53754251234278" lon="8.491628145977275"><ele>71.0</ele><time>2026-04-27T13:53:50.939Z</time></trkpt><trkpt lat="39.537438571558006" lon="8.491549953176259"><ele>69.0</ele><time>2026-04-27T13:53:52.939Z</time></trkpt><trkpt lat="39.537361157719175" lon="8.491496227999468"><ele>67.0</ele><time>2026-04-27T13:53:53.94Z</time></trkpt><trkpt lat="39.53729228406594" lon="8.491454599916294"><ele>67.0</ele><time>2026-04-27T13:53:54.94Z</time></trkpt><trkpt lat="39.537220002357095" lon="8.49134091483093"><ele>67.0</ele><time>2026-04-27T13:53:56.94Z</time></trkpt><trkpt lat="39.5371688391494" lon="8.491292342616191"><ele>67.0</ele><time>2026-04-27T13:53:57.94Z</time></trkpt><trkpt lat="39.53710463263077" lon="8.491251990767626"><ele>67.0</ele><time>2026-04-27T13:53:58.94Z</time></trkpt><trkpt lat="39.537002970699774" lon="8.491233704754281"><ele>67.0</ele><time>2026-04-27T13:54:00.94Z</time></trkpt><trkpt lat="39.53693065199519" lon="8.491176310579787"><ele>67.0</ele><time>2026-04-27T13:54:02.94Z</time></trkpt><trkpt lat="39.53688294731496" lon="8.491057595580845"><ele>67.0</ele><time>2026-04-27T13:54:04.94Z</time></trkpt><trkpt lat="39.53686899983509" lon="8.490976403092048"><ele>67.0</ele><time>2026-04-27T13:54:06.94Z</time></trkpt><trkpt lat="39.53680669945864" lon="8.490862900853125"><ele>67.0</ele><time>2026-04-27T13:54:08.94Z</time></trkpt><trkpt lat="39.5367264075496" lon="8.490771041797577"><ele>67.0</ele><time>2026-04-27T13:54:10.999Z</time></trkpt><trkpt lat="39.53667209999385" lon="8.49066160661749"><ele>67.0</ele><time>2026-04-27T13:54:12.999Z</time></trkpt><trkpt lat="39.53662158356871" lon="8.490522490617973"><ele>68.0</ele><time>2026-04-27T13:54:14.999Z</time></trkpt><trkpt lat="39.53661655524853" lon="8.490408031322717"><ele>69.0</ele><time>2026-04-27T13:54:16.999Z</time></trkpt><trkpt lat="39.53671926269272" lon="8.490291769960027"><ele>70.0</ele><time>2026-04-27T13:54:18.999Z</time></trkpt><trkpt lat="39.53679089005082" lon="8.490256123450507"><ele>71.0</ele><time>2026-04-27T13:54:19.999Z</time></trkpt><trkpt lat="39.53686882546112" lon="8.490236997129701"><ele>72.0</ele><time>2026-04-27T13:54:20.999Z</time></trkpt><trkpt lat="39.536949218350024" lon="8.490218292820455"><ele>72.0</ele><time>2026-04-27T13:54:21.999Z</time></trkpt><trkpt lat="39.53703069149813" lon="8.490203406790936"><ele>72.0</ele><time>2026-04-27T13:54:22.999Z</time></trkpt><trkpt lat="39.537120554675276" lon="8.490255924563284"><ele>72.0</ele><time>2026-04-27T13:54:24.999Z</time></trkpt><trkpt lat="39.53719124895248" lon="8.490283804143694"><ele>72.0</ele><time>2026-04-27T13:54:25.999Z</time></trkpt><trkpt lat="39.53726333166168" lon="8.490279526801505"><ele>72.0</ele><time>2026-04-27T13:54:27Z</time></trkpt><trkpt lat="39.537327011228804" lon="8.490272702481386"><ele>72.0</ele><time>2026-04-27T13:54:28Z</time></trkpt><trkpt lat="39.537393572882195" lon="8.490224158241949"><ele>69.2</ele><time>2026-04-27T13:54:29Z</time></trkpt><trkpt lat="39.53746477483642" lon="8.490142260639397"><ele>66.4</ele><time>2026-04-27T13:54:30Z</time></trkpt><trkpt lat="39.537551584090615" lon="8.490049847134054"><ele>63.599999999999994</ele><time>2026-04-27T13:54:31Z</time></trkpt><trkpt lat="39.537636807313056" lon="8.48998040984067"><ele>60.8</ele><time>2026-04-27T13:54:32Z</time></trkpt><trkpt lat="39.5377173329769" lon="8.489894045039845"><ele>58.0</ele><time>2026-04-27T13:54:33Z</time></trkpt><trkpt lat="39.537786997090265" lon="8.489821096767585"><ele>57.99999999999999</ele><time>2026-04-27T13:54:34Z</time></trkpt><trkpt lat="39.537851869885735" lon="8.489755927663804"><ele>58.0</ele><time>2026-04-27T13:54:35Z</time></trkpt><trkpt lat="39.537916503196115" lon="8.489704570303019"><ele>58.0</ele><time>2026-04-27T13:54:36Z</time></trkpt><trkpt lat="39.5379778409524" lon="8.489641688390147"><ele>58.0</ele><time>2026-04-27T13:54:37Z</time></trkpt><trkpt lat="39.53804675373342" lon="8.489582054581302"><ele>57.99999999999999</ele><time>2026-04-27T13:54:38Z</time></trkpt><trkpt lat="39.53812705554504" lon="8.489536684952052"><ele>58.0</ele><time>2026-04-27T13:54:39Z</time></trkpt><trkpt lat="39.53821220834223" lon="8.489520397909539"><ele>59.33333333333333</ele><time>2026-04-27T13:54:40Z</time></trkpt><trkpt lat="39.538299274800615" lon="8.489512279634836"><ele>60.666666666666664</ele><time>2026-04-27T13:54:41Z</time></trkpt><trkpt lat="39.5383845194055" lon="8.489522465817323"><ele>62.0</ele><time>2026-04-27T13:54:42Z</time></trkpt><trkpt lat="39.53846564136027" lon="8.489533050333586"><ele>63.33333333333333</ele><time>2026-04-27T13:54:43Z</time></trkpt><trkpt lat="39.53855822294524" lon="8.489561472738032"><ele>64.66666666666667</ele><time>2026-04-27T13:54:44Z</time></trkpt><trkpt lat="39.53864877626616" lon="8.489579434890931"><ele>66.0</ele><time>2026-04-27T13:54:45Z</time></trkpt><trkpt lat="39.538740225034864" lon="8.489586917906896"><ele>66.0</ele><time>2026-04-27T13:54:46Z</time></trkpt><trkpt lat="39.53882589869989" lon="8.489596652194784"><ele>66.0</ele><time>2026-04-27T13:54:47Z</time></trkpt><trkpt lat="39.538903131925075" lon="8.489596173353078"><ele>66.0</ele><time>2026-04-27T13:54:48Z</time></trkpt><trkpt lat="39.53897614841708" lon="8.489597789113315"><ele>66.0</ele><time>2026-04-27T13:54:49Z</time></trkpt><trkpt lat="39.53907740970204" lon="8.48958294906789"><ele>66.0</ele><time>2026-04-27T13:54:51Z</time></trkpt><trkpt lat="39.539173120743484" lon="8.48958376440298"><ele>66.0</ele><time>2026-04-27T13:54:53Z</time></trkpt><trkpt lat="39.53926475270702" lon="8.489578625027036"><ele>66.0</ele><time>2026-04-27T13:54:55Z</time></trkpt><trkpt lat="39.53938498122105" lon="8.489580109874607"><ele>66.0</ele><time>2026-04-27T13:54:57Z</time></trkpt><trkpt lat="39.53952120732104" lon="8.489553818354732"><ele>66.0</ele><time>2026-04-27T13:54:59Z</time></trkpt><trkpt lat="39.539606475619784" lon="8.489530599296112"><ele>66.0</ele><time>2026-04-27T13:55:00Z</time></trkpt><trkpt lat="39.539685849335584" lon="8.489499974371546"><ele>66.0</ele><time>2026-04-27T13:55:01Z</time></trkpt><trkpt lat="39.53977545033005" lon="8.489475983116229"><ele>65.0</ele><time>2026-04-27T13:55:02Z</time></trkpt><trkpt lat="39.539865175268766" lon="8.489456075575017"><ele>64.0</ele><time>2026-04-27T13:55:03.001Z</time></trkpt><trkpt lat="39.53994409132533" lon="8.489435476931996"><ele>63.0</ele><time>2026-04-27T13:55:04.001Z</time></trkpt><trkpt lat="39.54002344686998" lon="8.48943079703431"><ele>62.0</ele><time>2026-04-27T13:55:05.001Z</time></trkpt><trkpt lat="39.54010459000874" lon="8.489430592135555"><ele>61.0</ele><time>2026-04-27T13:55:06.001Z</time></trkpt><trkpt lat="39.5401848935014" lon="8.48941724373118"><ele>60.0</ele><time>2026-04-27T13:55:07.001Z</time></trkpt><trkpt lat="39.540265804165095" lon="8.48940076025579"><ele>60.0</ele><time>2026-04-27T13:55:08.001Z</time></trkpt><trkpt lat="39.54033469490369" lon="8.489383467460577"><ele>60.0</ele><time>2026-04-27T13:55:09.001Z</time></trkpt><trkpt lat="39.540407825078425" lon="8.489364392853334"><ele>60.0</ele><time>2026-04-27T13:55:10.001Z</time></trkpt><trkpt lat="39.54050572899287" lon="8.48925688772205"><ele>60.0</ele><time>2026-04-27T13:55:12.001Z</time></trkpt><trkpt lat="39.54056556857844" lon="8.48918996741432"><ele>60.0</ele><time>2026-04-27T13:55:13.001Z</time></trkpt><trkpt lat="39.54062409964084" lon="8.489114116299891"><ele>60.0</ele><time>2026-04-27T13:55:14.001Z</time></trkpt><trkpt lat="39.540664495475774" lon="8.489028860138347"><ele>59.0</ele><time>2026-04-27T13:55:15.001Z</time></trkpt><trkpt lat="39.54068311253124" lon="8.488936982609221"><ele>58.0</ele><time>2026-04-27T13:55:16.001Z</time></trkpt><trkpt lat="39.54069373096492" lon="8.48884649411656"><ele>57.0</ele><time>2026-04-27T13:55:17.001Z</time></trkpt><trkpt lat="39.54072418817858" lon="8.488694893854804"><ele>56.0</ele><time>2026-04-27T13:55:19.001Z</time></trkpt><trkpt lat="39.5407511288898" lon="8.48856111817056"><ele>55.0</ele><time>2026-04-27T13:55:21.001Z</time></trkpt><trkpt lat="39.5408203628889" lon="8.488443706780625"><ele>54.83333333333333</ele><time>2026-04-27T13:55:23.001Z</time></trkpt><trkpt lat="39.5408275093439" lon="8.488341853070763"><ele>54.666666666666664</ele><time>2026-04-27T13:55:25.001Z</time></trkpt><trkpt lat="39.540829295025496" lon="8.488191703575287"><ele>54.5</ele><time>2026-04-27T13:55:27.001Z</time></trkpt><trkpt lat="39.540851334546254" lon="8.488099785199447"><ele>54.33333333333333</ele><time>2026-04-27T13:55:28.001Z</time></trkpt><trkpt lat="39.54088245987429" lon="8.488014820327958"><ele>54.166666666666664</ele><time>2026-04-27T13:55:29.001Z</time></trkpt><trkpt lat="39.540931353365636" lon="8.487940254910859"><ele>54.0</ele><time>2026-04-27T13:55:30.001Z</time></trkpt><trkpt lat="39.540978717464775" lon="8.487867219849376"><ele>54.0</ele><time>2026-04-27T13:55:31.001Z</time></trkpt><trkpt lat="39.54103846430269" lon="8.487801961076068"><ele>54.0</ele><time>2026-04-27T13:55:32.001Z</time></trkpt><trkpt lat="39.54110203356686" lon="8.48775233182909"><ele>54.0</ele><time>2026-04-27T13:55:33.001Z</time></trkpt><trkpt lat="39.54116885035987" lon="8.487718829694018"><ele>54.0</ele><time>2026-04-27T13:55:34.001Z</time></trkpt><trkpt lat="39.54123774982017" lon="8.487692241156145"><ele>54.0</ele><time>2026-04-27T13:55:35.001Z</time></trkpt><trkpt lat="39.54130785686096" lon="8.487680290463082"><ele>54.0</ele><time>2026-04-27T13:55:36.001Z</time></trkpt><trkpt lat="39.54137641460866" lon="8.487678613052044"><ele>54.0</ele><time>2026-04-27T13:55:37.001Z</time></trkpt><trkpt lat="39.54145435579197" lon="8.487696158192884"><ele>53.0</ele><time>2026-04-27T13:55:39.001Z</time></trkpt><trkpt lat="39.54152088279895" lon="8.487696570439391"><ele>52.0</ele><time>2026-04-27T13:55:41.001Z</time></trkpt><trkpt lat="39.54161622186204" lon="8.487688876292214"><ele>51.0</ele><time>2026-04-27T13:55:43.001Z</time></trkpt><trkpt lat="39.54168356697365" lon="8.487700384066441"><ele>50.0</ele><time>2026-04-27T13:55:45.001Z</time></trkpt><trkpt lat="39.54174786209906" lon="8.487708024382513"><ele>49.0</ele><time>2026-04-27T13:55:47.001Z</time></trkpt><trkpt lat="39.541873809463276" lon="8.48772662333232"><ele>48.0</ele><time>2026-04-27T13:55:49.002Z</time></trkpt><trkpt lat="39.541955031643866" lon="8.487726800103768"><ele>48.0</ele><time>2026-04-27T13:55:50.002Z</time></trkpt><trkpt lat="39.54202914439264" lon="8.4877270636328"><ele>48.0</ele><time>2026-04-27T13:55:51.002Z</time></trkpt><trkpt lat="39.5421050158698" lon="8.48771139289507"><ele>48.0</ele><time>2026-04-27T13:55:52.002Z</time></trkpt><trkpt lat="39.542174819234454" lon="8.487678815758082"><ele>48.0</ele><time>2026-04-27T13:55:53.002Z</time></trkpt><trkpt lat="39.54224096523552" lon="8.48763403436745"><ele>48.0</ele><time>2026-04-27T13:55:54.002Z</time></trkpt><trkpt lat="39.542316635651204" lon="8.487595321978393"><ele>48.0</ele><time>2026-04-27T13:55:55.002Z</time></trkpt><trkpt lat="39.54238853457326" lon="8.487548072002406"><ele>47.2</ele><time>2026-04-27T13:55:56.002Z</time></trkpt><trkpt lat="39.54246558746633" lon="8.48749030796422"><ele>46.4</ele><time>2026-04-27T13:55:57.002Z</time></trkpt><trkpt lat="39.54253984104041" lon="8.487409860817865"><ele>45.6</ele><time>2026-04-27T13:55:58.002Z</time></trkpt><trkpt lat="39.542615829019084" lon="8.487330816319648"><ele>44.800000000000004</ele><time>2026-04-27T13:55:59.002Z</time></trkpt><trkpt lat="39.542688973553844" lon="8.487254792342107"><ele>44.0</ele><time>2026-04-27T13:56:00.002Z</time></trkpt><trkpt lat="39.54276115126581" lon="8.487183607564527"><ele>44.0</ele><time>2026-04-27T13:56:01.002Z</time></trkpt><trkpt lat="39.542842665521725" lon="8.48711008126013"><ele>44.0</ele><time>2026-04-27T13:56:02.002Z</time></trkpt><trkpt lat="39.542910748992725" lon="8.487047566528233"><ele>44.0</ele><time>2026-04-27T13:56:03.002Z</time></trkpt><trkpt lat="39.54300042848599" lon="8.486984432446803"><ele>44.0</ele><time>2026-04-27T13:56:04.002Z</time></trkpt><trkpt lat="39.54307947493704" lon="8.48691768944285"><ele>44.0</ele><time>2026-04-27T13:56:05.002Z</time></trkpt><trkpt lat="39.54314187582244" lon="8.48683266456891"><ele>43.800000000000004</ele><time>2026-04-27T13:56:06.002Z</time></trkpt><trkpt lat="39.54319315754508" lon="8.486733514308096"><ele>43.6</ele><time>2026-04-27T13:56:07.002Z</time></trkpt><trkpt lat="39.54323789293341" lon="8.486622934624496"><ele>43.4</ele><time>2026-04-27T13:56:08.002Z</time></trkpt><trkpt lat="39.54327372523197" lon="8.486502854355207"><ele>43.2</ele><time>2026-04-27T13:56:09.002Z</time></trkpt><trkpt lat="39.54331255329402" lon="8.48637822200026"><ele>43.0</ele><time>2026-04-27T13:56:10.002Z</time></trkpt><trkpt lat="39.54336587256912" lon="8.48625607292606"><ele>43.0</ele><time>2026-04-27T13:56:11.002Z</time></trkpt><trkpt lat="39.54342159229314" lon="8.48613564741187"><ele>43.0</ele><time>2026-04-27T13:56:12.002Z</time></trkpt><trkpt lat="39.54345793435457" lon="8.486011154160657"><ele>43.0</ele><time>2026-04-27T13:56:13.002Z</time></trkpt><trkpt lat="39.54349657150687" lon="8.485901883410616"><ele>43.0</ele><time>2026-04-27T13:56:14.002Z</time></trkpt><trkpt lat="39.54353991085006" lon="8.485803519036013"><ele>43.0</ele><time>2026-04-27T13:56:15.002Z</time></trkpt><trkpt lat="39.5435882927082" lon="8.485693597892684"><ele>43.0</ele><time>2026-04-27T13:56:16.002Z</time></trkpt><trkpt lat="39.54364828352697" lon="8.485578781281879"><ele>43.0</ele><time>2026-04-27T13:56:17.002Z</time></trkpt><trkpt lat="39.54372091483202" lon="8.485484294104232"><ele>43.0</ele><time>2026-04-27T13:56:18.002Z</time></trkpt><trkpt lat="39.54378723366039" lon="8.485393048633219"><ele>43.0</ele><time>2026-04-27T13:56:19.002Z</time></trkpt><trkpt lat="39.5438434369158" lon="8.485314914312006"><ele>43.0</ele><time>2026-04-27T13:56:20.002Z</time></trkpt><trkpt lat="39.5438961115544" lon="8.485251035384662"><ele>42.0</ele><time>2026-04-27T13:56:21.002Z</time></trkpt><trkpt lat="39.543967140836806" lon="8.48517845631537"><ele>41.0</ele><time>2026-04-27T13:56:22.002Z</time></trkpt><trkpt lat="39.54403282488733" lon="8.485112174668116"><ele>40.0</ele><time>2026-04-27T13:56:23.002Z</time></trkpt><trkpt lat="39.544077095473504" lon="8.48505015216504"><ele>39.0</ele><time>2026-04-27T13:56:24.002Z</time></trkpt><trkpt lat="39.54415115989219" lon="8.484902685794623"><ele>38.0</ele><time>2026-04-27T13:56:26.002Z</time></trkpt><trkpt lat="39.5441993601595" lon="8.484825318541596"><ele>38.0</ele><time>2026-04-27T13:56:27.002Z</time></trkpt><trkpt lat="39.5442569634413" lon="8.48476522855766"><ele>38.0</ele><time>2026-04-27T13:56:28.002Z</time></trkpt><trkpt lat="39.54433198786737" lon="8.484693787406902"><ele>38.0</ele><time>2026-04-27T13:56:29.002Z</time></trkpt><trkpt lat="39.544411048776816" lon="8.484622593356617"><ele>38.0</ele><time>2026-04-27T13:56:30.002Z</time></trkpt><trkpt lat="39.54449979283463" lon="8.484561068921689"><ele>38.0</ele><time>2026-04-27T13:56:31.002Z</time></trkpt><trkpt lat="39.54457752701678" lon="8.484504375590971"><ele>37.166666666666664</ele><time>2026-04-27T13:56:32.002Z</time></trkpt><trkpt lat="39.54465502878109" lon="8.48443709101809"><ele>36.33333333333333</ele><time>2026-04-27T13:56:33.002Z</time></trkpt><trkpt lat="39.54473441247554" lon="8.484353422672804"><ele>35.5</ele><time>2026-04-27T13:56:34.003Z</time></trkpt><trkpt lat="39.54480643530496" lon="8.48428190944592"><ele>34.666666666666664</ele><time>2026-04-27T13:56:35.003Z</time></trkpt><trkpt lat="39.544875492499834" lon="8.48421984355249"><ele>33.833333333333336</ele><time>2026-04-27T13:56:36.003Z</time></trkpt><trkpt lat="39.54492855901571" lon="8.484169107259406"><ele>33.0</ele><time>2026-04-27T13:56:37.003Z</time></trkpt><trkpt lat="39.544966672100266" lon="8.484102624983297"><ele>33.0</ele><time>2026-04-27T13:56:38.003Z</time></trkpt><trkpt lat="39.54499548341247" lon="8.484012334242587"><ele>33.0</ele><time>2026-04-27T13:56:39.003Z</time></trkpt><trkpt lat="39.54501902570961" lon="8.48388656162875"><ele>33.0</ele><time>2026-04-27T13:56:40.003Z</time></trkpt><trkpt lat="39.54504381924948" lon="8.483757336762189"><ele>33.0</ele><time>2026-04-27T13:56:41.003Z</time></trkpt><trkpt lat="39.54506021033663" lon="8.48363533046214"><ele>33.0</ele><time>2026-04-27T13:56:42.003Z</time></trkpt><trkpt lat="39.545067757920876" lon="8.483519446878695"><ele>32.8</ele><time>2026-04-27T13:56:43.003Z</time></trkpt><trkpt lat="39.545067546471756" lon="8.48340702173213"><ele>32.599999999999994</ele><time>2026-04-27T13:56:44.003Z</time></trkpt><trkpt lat="39.54507785360844" lon="8.483302740700372"><ele>32.400000000000006</ele><time>2026-04-27T13:56:45.003Z</time></trkpt><trkpt lat="39.54508107460408" lon="8.483176930070195"><ele>32.2</ele><time>2026-04-27T13:56:46.003Z</time></trkpt><trkpt lat="39.54508157267929" lon="8.483034505594274"><ele>32.0</ele><time>2026-04-27T13:56:47.003Z</time></trkpt><trkpt lat="39.545082561056695" lon="8.482912930728682"><ele>32.0</ele><time>2026-04-27T13:56:48.003Z</time></trkpt><trkpt lat="39.54507632973021" lon="8.482800480999794"><ele>32.0</ele><time>2026-04-27T13:56:49.003Z</time></trkpt><trkpt lat="39.545075137216074" lon="8.482685271435653"><ele>32.0</ele><time>2026-04-27T13:56:50.003Z</time></trkpt><trkpt lat="39.54507857326639" lon="8.482578067486845"><ele>32.0</ele><time>2026-04-27T13:56:51.003Z</time></trkpt><trkpt lat="39.54507461646279" lon="8.482451658731899"><ele>32.0</ele><time>2026-04-27T13:56:52.003Z</time></trkpt><trkpt lat="39.545080434823824" lon="8.482330022915303"><ele>31.999999999999996</ele><time>2026-04-27T13:56:53.003Z</time></trkpt><trkpt lat="39.545097979592285" lon="8.482208036208911"><ele>32.0</ele><time>2026-04-27T13:56:54.003Z</time></trkpt><trkpt lat="39.54513704881559" lon="8.482143403421892"><ele>32.0</ele><time>2026-04-27T13:56:55.003Z</time></trkpt><trkpt lat="39.5451875107767" lon="8.482060220241621"><ele>32.0</ele><time>2026-04-27T13:56:57.003Z</time></trkpt><trkpt lat="39.545235718111726" lon="8.481989486229242"><ele>31.999999999999996</ele><time>2026-04-27T13:56:58.003Z</time></trkpt><trkpt lat="39.54529388590452" lon="8.48190971544924"><ele>32.0</ele><time>2026-04-27T13:56:59.003Z</time></trkpt><trkpt lat="39.54536387805237" lon="8.481842718641381"><ele>31.833333333333332</ele><time>2026-04-27T13:57:00.003Z</time></trkpt><trkpt lat="39.54542890967708" lon="8.481771278769767"><ele>31.666666666666664</ele><time>2026-04-27T13:57:01.003Z</time></trkpt><trkpt lat="39.54548598104065" lon="8.481696371971175"><ele>31.5</ele><time>2026-04-27T13:57:02.003Z</time></trkpt><trkpt lat="39.54551504171146" lon="8.481621280585188"><ele>31.333333333333336</ele><time>2026-04-27T13:57:03.003Z</time></trkpt><trkpt lat="39.54555567770217" lon="8.481465820335176"><ele>31.166666666666668</ele><time>2026-04-27T13:57:05.003Z</time></trkpt><trkpt lat="39.54561360812395" lon="8.481418606377227"><ele>31.0</ele><time>2026-04-27T13:57:06.003Z</time></trkpt><trkpt lat="39.54568575261149" lon="8.481370377957234"><ele>31.0</ele><time>2026-04-27T13:57:07.003Z</time></trkpt><trkpt lat="39.545767027531035" lon="8.481302747203697"><ele>31.0</ele><time>2026-04-27T13:57:08.003Z</time></trkpt><trkpt lat="39.54584096026984" lon="8.481227799025508"><ele>31.0</ele><time>2026-04-27T13:57:09.003Z</time></trkpt><trkpt lat="39.54589546384832" lon="8.481137996803513"><ele>31.0</ele><time>2026-04-27T13:57:10.003Z</time></trkpt><trkpt lat="39.54595346239087" lon="8.481058012757403"><ele>31.0</ele><time>2026-04-27T13:57:11.003Z</time></trkpt><trkpt lat="39.54602243991656" lon="8.48097713516103"><ele>31.0</ele><time>2026-04-27T13:57:12.003Z</time></trkpt><trkpt lat="39.54609393136757" lon="8.480913049402757"><ele>31.0</ele><time>2026-04-27T13:57:13.003Z</time></trkpt><trkpt lat="39.54616771653682" lon="8.480825720507092"><ele>31.0</ele><time>2026-04-27T13:57:14.003Z</time></trkpt><trkpt lat="39.54623274715163" lon="8.480742695099417"><ele>31.0</ele><time>2026-04-27T13:57:15.003Z</time></trkpt><trkpt lat="39.54630310129387" lon="8.480669957122574"><ele>31.0</ele><time>2026-04-27T13:57:16.003Z</time></trkpt><trkpt lat="39.546381565449884" lon="8.480629838707392"><ele>31.0</ele><time>2026-04-27T13:57:17.003Z</time></trkpt><trkpt lat="39.54645580937437" lon="8.48058510500631"><ele>31.000000000000004</ele><time>2026-04-27T13:57:18.003Z</time></trkpt><trkpt lat="39.546519852296676" lon="8.480521618587103"><ele>31.0</ele><time>2026-04-27T13:57:19.003Z</time></trkpt><trkpt lat="39.54657134251573" lon="8.480451329836049"><ele>31.0</ele><time>2026-04-27T13:57:20.004Z</time></trkpt><trkpt lat="39.54661022545876" lon="8.48038129354714"><ele>31.000000000000004</ele><time>2026-04-27T13:57:21.004Z</time></trkpt><trkpt lat="39.54664070129774" lon="8.480295986627022"><ele>31.0</ele><time>2026-04-27T13:57:22.004Z</time></trkpt><trkpt lat="39.54664248973721" lon="8.480207941308292"><ele>31.0</ele><time>2026-04-27T13:57:23.004Z</time></trkpt><trkpt lat="39.546624549545" lon="8.48011169581652"><ele>30.4</ele><time>2026-04-27T13:57:24.004Z</time></trkpt><trkpt lat="39.54660331415229" lon="8.480000441492995"><ele>29.8</ele><time>2026-04-27T13:57:25.004Z</time></trkpt><trkpt lat="39.54657462771881" lon="8.479894850691933"><ele>29.199999999999996</ele><time>2026-04-27T13:57:26.004Z</time></trkpt><trkpt lat="39.54655671564665" lon="8.479775730727875"><ele>28.599999999999998</ele><time>2026-04-27T13:57:27.004Z</time></trkpt><trkpt lat="39.54653883684281" lon="8.4796482016078"><ele>28.0</ele><time>2026-04-27T13:57:28.004Z</time></trkpt><trkpt lat="39.54650742862483" lon="8.479544796451405"><ele>27.666666666666668</ele><time>2026-04-27T13:57:29.004Z</time></trkpt><trkpt lat="39.54647513070202" lon="8.479445317032956"><ele>27.333333333333336</ele><time>2026-04-27T13:57:30.004Z</time></trkpt><trkpt lat="39.54645059769231" lon="8.479353982085726"><ele>27.0</ele><time>2026-04-27T13:57:31.004Z</time></trkpt><trkpt lat="39.546451255490005" lon="8.479205654945744"><ele>26.666666666666664</ele><time>2026-04-27T13:57:33.004Z</time></trkpt><trkpt lat="39.54649780578472" lon="8.47913044749295"><ele>26.333333333333332</ele><time>2026-04-27T13:57:35.004Z</time></trkpt><trkpt lat="39.546588815666496" lon="8.47907330007982"><ele>26.0</ele><time>2026-04-27T13:57:37.004Z</time></trkpt><trkpt lat="39.54666710501954" lon="8.4789725222489"><ele>25.999999999999996</ele><time>2026-04-27T13:57:39.004Z</time></trkpt><trkpt lat="39.546702342922266" lon="8.478904516242496"><ele>26.0</ele><time>2026-04-27T13:57:40.004Z</time></trkpt><trkpt lat="39.546740351541104" lon="8.47881668371519"><ele>26.0</ele><time>2026-04-27T13:57:41.004Z</time></trkpt><trkpt lat="39.54678109916559" lon="8.478732218436996"><ele>26.0</ele><time>2026-04-27T13:57:42.004Z</time></trkpt><trkpt lat="39.54683767535153" lon="8.478645471615986"><ele>25.999999999999996</ele><time>2026-04-27T13:57:43.004Z</time></trkpt><trkpt lat="39.546897635800406" lon="8.4785522131219"><ele>26.0</ele><time>2026-04-27T13:57:44.004Z</time></trkpt><trkpt lat="39.54695864653179" lon="8.478464491134737"><ele>25.833333333333332</ele><time>2026-04-27T13:57:45.004Z</time></trkpt><trkpt lat="39.54701809230023" lon="8.478379905199674"><ele>25.666666666666664</ele><time>2026-04-27T13:57:46.004Z</time></trkpt><trkpt lat="39.54708084330281" lon="8.478291741561604"><ele>25.5</ele><time>2026-04-27T13:57:47.004Z</time></trkpt><trkpt lat="39.54713777071285" lon="8.478206053670862"><ele>25.333333333333336</ele><time>2026-04-27T13:57:48.004Z</time></trkpt><trkpt lat="39.547193752328496" lon="8.478118225946417"><ele>25.166666666666668</ele><time>2026-04-27T13:57:49.004Z</time></trkpt><trkpt lat="39.54725228210067" lon="8.478036155610187"><ele>25.0</ele><time>2026-04-27T13:57:50.004Z</time></trkpt><trkpt lat="39.54730657694202" lon="8.47794785506494"><ele>24.666666666666668</ele><time>2026-04-27T13:57:51.004Z</time></trkpt><trkpt lat="39.54735614768612" lon="8.477862036336692"><ele>24.333333333333336</ele><time>2026-04-27T13:57:52.004Z</time></trkpt><trkpt lat="39.54738967968857" lon="8.477778324731204"><ele>24.0</ele><time>2026-04-27T13:57:53.004Z</time></trkpt><trkpt lat="39.547412805080214" lon="8.477686130733586"><ele>23.666666666666668</ele><time>2026-04-27T13:57:54.004Z</time></trkpt><trkpt lat="39.54742476690411" lon="8.477544638445762"><ele>23.333333333333336</ele><time>2026-04-27T13:57:56.004Z</time></trkpt><trkpt lat="39.547443190940264" lon="8.477404894120289"><ele>23.0</ele><time>2026-04-27T13:57:58.004Z</time></trkpt><trkpt lat="39.54746101273587" lon="8.47723874439159"><ele>23.0</ele><time>2026-04-27T13:58:00.004Z</time></trkpt><trkpt lat="39.5474739135051" lon="8.477138936122236"><ele>23.0</ele><time>2026-04-27T13:58:01.004Z</time></trkpt><trkpt lat="39.547477383540766" lon="8.47704531618961"><ele>23.0</ele><time>2026-04-27T13:58:02.004Z</time></trkpt><trkpt lat="39.547490807278415" lon="8.476930780394834"><ele>23.0</ele><time>2026-04-27T13:58:03.004Z</time></trkpt><trkpt lat="39.54751520145771" lon="8.476819204851747"><ele>23.0</ele><time>2026-04-27T13:58:04.004Z</time></trkpt><trkpt lat="39.547549582489935" lon="8.476733763349026"><ele>23.0</ele><time>2026-04-27T13:58:05.004Z</time></trkpt><trkpt lat="39.54759791136443" lon="8.476654504626415"><ele>23.0</ele><time>2026-04-27T13:58:06.005Z</time></trkpt><trkpt lat="39.547658475927086" lon="8.47656040905873"><ele>23.0</ele><time>2026-04-27T13:58:08.005Z</time></trkpt><trkpt lat="39.54770197263414" lon="8.476468978970964"><ele>23.0</ele><time>2026-04-27T13:58:10.005Z</time></trkpt><trkpt lat="39.547730334431265" lon="8.476347897242299"><ele>23.0</ele><time>2026-04-27T13:58:12.005Z</time></trkpt><trkpt lat="39.54774272667586" lon="8.476258605896485"><ele>23.0</ele><time>2026-04-27T13:58:13.005Z</time></trkpt><trkpt lat="39.5477551493766" lon="8.476145420883963"><ele>23.0</ele><time>2026-04-27T13:58:14.005Z</time></trkpt><trkpt lat="39.547769053819046" lon="8.476045946387053"><ele>23.0</ele><time>2026-04-27T13:58:15.005Z</time></trkpt><trkpt lat="39.54778164059863" lon="8.475941447286852"><ele>23.0</ele><time>2026-04-27T13:58:16.005Z</time></trkpt><trkpt lat="39.54779285015257" lon="8.475831206068944"><ele>23.0</ele><time>2026-04-27T13:58:17.005Z</time></trkpt><trkpt lat="39.547807367594096" lon="8.47572340887808"><ele>23.0</ele><time>2026-04-27T13:58:18.005Z</time></trkpt><trkpt lat="39.54783115599144" lon="8.47561696015244"><ele>23.0</ele><time>2026-04-27T13:58:19.005Z</time></trkpt><trkpt lat="39.5478712735199" lon="8.475523125774231"><ele>23.0</ele><time>2026-04-27T13:58:20.005Z</time></trkpt><trkpt lat="39.547927242176314" lon="8.475443633524813"><ele>22.5</ele><time>2026-04-27T13:58:21.005Z</time></trkpt><trkpt lat="39.54798211001779" lon="8.475364637997528"><ele>22.0</ele><time>2026-04-27T13:58:22.005Z</time></trkpt><trkpt lat="39.54803241063373" lon="8.475284524160985"><ele>21.5</ele><time>2026-04-27T13:58:23.005Z</time></trkpt><trkpt lat="39.548077188937256" lon="8.47518757817451"><ele>21.0</ele><time>2026-04-27T13:58:24.005Z</time></trkpt><trkpt lat="39.54811057040248" lon="8.475099006824557"><ele>20.5</ele><time>2026-04-27T13:58:25.005Z</time></trkpt><trkpt lat="39.54814359236364" lon="8.474990157720635"><ele>20.0</ele><time>2026-04-27T13:58:26.005Z</time></trkpt><trkpt lat="39.548166910220374" lon="8.474890594592967"><ele>20.0</ele><time>2026-04-27T13:58:27.005Z</time></trkpt><trkpt lat="39.548198167566" lon="8.474777330151518"><ele>20.0</ele><time>2026-04-27T13:58:28.005Z</time></trkpt><trkpt lat="39.548232082891104" lon="8.474660204861523"><ele>20.0</ele><time>2026-04-27T13:58:29.005Z</time></trkpt><trkpt lat="39.54827101637927" lon="8.474546041999735"><ele>20.0</ele><time>2026-04-27T13:58:30.005Z</time></trkpt><trkpt lat="39.548310226747766" lon="8.474437801569671"><ele>20.0</ele><time>2026-04-27T13:58:31.005Z</time></trkpt><trkpt lat="39.54835262457028" lon="8.474324544022133"><ele>19.6</ele><time>2026-04-27T13:58:32.005Z</time></trkpt><trkpt lat="39.54838535263854" lon="8.474211764348311"><ele>19.2</ele><time>2026-04-27T13:58:33.005Z</time></trkpt><trkpt lat="39.54841016959971" lon="8.474090619655655"><ele>18.8</ele><time>2026-04-27T13:58:34.005Z</time></trkpt><trkpt lat="39.548428523383876" lon="8.473969791702052"><ele>18.4</ele><time>2026-04-27T13:58:35.005Z</time></trkpt><trkpt lat="39.54844593598537" lon="8.473860352835832"><ele>18.0</ele><time>2026-04-27T13:58:36.005Z</time></trkpt><trkpt lat="39.548495331363334" lon="8.473742001589242"><ele>17.833333333333332</ele><time>2026-04-27T13:58:38.005Z</time></trkpt><trkpt lat="39.54855167225877" lon="8.473697176129942"><ele>17.666666666666668</ele><time>2026-04-27T13:58:39.005Z</time></trkpt><trkpt lat="39.548626863583735" lon="8.473656555075854"><ele>17.5</ele><time>2026-04-27T13:58:40.005Z</time></trkpt><trkpt lat="39.548691891438295" lon="8.473620094201115"><ele>17.333333333333336</ele><time>2026-04-27T13:58:41.005Z</time></trkpt><trkpt lat="39.54874634097335" lon="8.473485416561632"><ele>17.166666666666668</ele><time>2026-04-27T13:58:43.005Z</time></trkpt><trkpt lat="39.548771280230916" lon="8.47339880674921"><ele>17.0</ele><time>2026-04-27T13:58:44.005Z</time></trkpt><trkpt lat="39.548796292553504" lon="8.473298683295848"><ele>17.0</ele><time>2026-04-27T13:58:45.005Z</time></trkpt><trkpt lat="39.54882176887481" lon="8.473206192361582"><ele>17.0</ele><time>2026-04-27T13:58:46.005Z</time></trkpt><trkpt lat="39.54881296497203" lon="8.47307121635163"><ele>17.0</ele><time>2026-04-27T13:58:48.005Z</time></trkpt><trkpt lat="39.54875903111882" lon="8.473009305713704"><ele>17.0</ele><time>2026-04-27T13:58:49.005Z</time></trkpt><trkpt lat="39.54868560479308" lon="8.472931621218814"><ele>17.0</ele><time>2026-04-27T13:58:50.005Z</time></trkpt><trkpt lat="39.54862066418317" lon="8.472848798444579"><ele>17.0</ele><time>2026-04-27T13:58:51.005Z</time></trkpt><trkpt lat="39.548579528567956" lon="8.472774810361987"><ele>16.666666666666668</ele><time>2026-04-27T13:58:52.006Z</time></trkpt><trkpt lat="39.548559457520305" lon="8.472623649705053"><ele>16.333333333333336</ele><time>2026-04-27T13:58:54.006Z</time></trkpt><trkpt lat="39.54854919140722" lon="8.472542731296574"><ele>16.0</ele><time>2026-04-27T13:58:55.006Z</time></trkpt><trkpt lat="39.54853085370824" lon="8.472458769814576"><ele>15.666666666666668</ele><time>2026-04-27T13:58:56.006Z</time></trkpt><trkpt lat="39.54849684970525" lon="8.47238872594773"><ele>15.333333333333334</ele><time>2026-04-27T13:58:57.006Z</time></trkpt><trkpt lat="39.54844733161904" lon="8.472322740767158"><ele>15.0</ele><time>2026-04-27T13:58:58.006Z</time></trkpt><trkpt lat="39.5484019781314" lon="8.472254965440639"><ele>15.0</ele><time>2026-04-27T13:58:59.006Z</time></trkpt><trkpt lat="39.54835505937911" lon="8.47217350014097"><ele>15.0</ele><time>2026-04-27T13:59:00.006Z</time></trkpt><trkpt lat="39.54831319120142" lon="8.472090904828907"><ele>15.0</ele><time>2026-04-27T13:59:01.006Z</time></trkpt><trkpt lat="39.5482645557926" lon="8.47200519713408"><ele>15.0</ele><time>2026-04-27T13:59:02.006Z</time></trkpt><trkpt lat="39.548215149682015" lon="8.471910702845785"><ele>15.0</ele><time>2026-04-27T13:59:03.006Z</time></trkpt><trkpt lat="39.54816719674045" lon="8.471815052302098"><ele>15.0</ele><time>2026-04-27T13:59:04.006Z</time></trkpt><trkpt lat="39.54812975209741" lon="8.471715559404778"><ele>15.0</ele><time>2026-04-27T13:59:05.006Z</time></trkpt><trkpt lat="39.548086802873385" lon="8.471618901653459"><ele>15.0</ele><time>2026-04-27T13:59:06.006Z</time></trkpt><trkpt lat="39.54803723049367" lon="8.471536964470834"><ele>15.0</ele><time>2026-04-27T13:59:07.006Z</time></trkpt><trkpt lat="39.54798353983221" lon="8.471461422739635"><ele>15.0</ele><time>2026-04-27T13:59:08.006Z</time></trkpt><trkpt lat="39.54792218380379" lon="8.471397601619008"><ele>15.0</ele><time>2026-04-27T13:59:09.006Z</time></trkpt><trkpt lat="39.54785317099453" lon="8.471319440309317"><ele>15.0</ele><time>2026-04-27T13:59:10.006Z</time></trkpt><trkpt lat="39.54779799683406" lon="8.471222564809937"><ele>15.2</ele><time>2026-04-27T13:59:11.006Z</time></trkpt><trkpt lat="39.547756347798405" lon="8.471125692083914"><ele>15.4</ele><time>2026-04-27T13:59:12.006Z</time></trkpt><trkpt lat="39.54771564989841" lon="8.471021407654389"><ele>15.600000000000001</ele><time>2026-04-27T13:59:13.006Z</time></trkpt><trkpt lat="39.54769356052033" lon="8.470925503967951"><ele>15.8</ele><time>2026-04-27T13:59:14.006Z</time></trkpt><trkpt lat="39.54767122789104" lon="8.470793137803328"><ele>16.0</ele><time>2026-04-27T13:59:16.006Z</time></trkpt><trkpt lat="39.547645039669085" lon="8.470673782960539"><ele>15.999999999999998</ele><time>2026-04-27T13:59:18.006Z</time></trkpt><trkpt lat="39.547633723965106" lon="8.470584086801995"><ele>16.0</ele><time>2026-04-27T13:59:19.006Z</time></trkpt><trkpt lat="39.547620778716336" lon="8.470482693311947"><ele>16.0</ele><time>2026-04-27T13:59:20.006Z</time></trkpt><trkpt lat="39.54761906066824" lon="8.47038120918354"><ele>16.0</ele><time>2026-04-27T13:59:21.006Z</time></trkpt><trkpt lat="39.547620016811706" lon="8.470268229011788"><ele>15.999999999999998</ele><time>2026-04-27T13:59:22.006Z</time></trkpt><trkpt lat="39.54763186820502" lon="8.470155124837493"><ele>16.0</ele><time>2026-04-27T13:59:23.006Z</time></trkpt><trkpt lat="39.54763881109595" lon="8.470028810408662"><ele>15.8</ele><time>2026-04-27T13:59:24.006Z</time></trkpt><trkpt lat="39.54764192772778" lon="8.469903544501532"><ele>15.600000000000001</ele><time>2026-04-27T13:59:25.006Z</time></trkpt><trkpt lat="39.547642872218994" lon="8.46978232737238"><ele>15.4</ele><time>2026-04-27T13:59:26.006Z</time></trkpt><trkpt lat="39.54763696929375" lon="8.469662561479069"><ele>15.2</ele><time>2026-04-27T13:59:27.006Z</time></trkpt><trkpt lat="39.54762329891323" lon="8.469554255544258"><ele>15.0</ele><time>2026-04-27T13:59:28.006Z</time></trkpt><trkpt lat="39.54760451185283" lon="8.469446966069485"><ele>15.0</ele><time>2026-04-27T13:59:29.006Z</time></trkpt><trkpt lat="39.54756472300249" lon="8.469334805151822"><ele>15.0</ele><time>2026-04-27T13:59:30.006Z</time></trkpt><trkpt lat="39.547518520525315" lon="8.469225097646534"><ele>15.0</ele><time>2026-04-27T13:59:31.006Z</time></trkpt><trkpt lat="39.54747635247866" lon="8.469113227989666"><ele>15.0</ele><time>2026-04-27T13:59:32.006Z</time></trkpt><trkpt lat="39.54745115057528" lon="8.468993961960402"><ele>15.0</ele><time>2026-04-27T13:59:33.006Z</time></trkpt><trkpt lat="39.54744036403801" lon="8.468866137340095"><ele>14.6</ele><time>2026-04-27T13:59:34.006Z</time></trkpt><trkpt lat="39.54743680900104" lon="8.468734466213665"><ele>14.2</ele><time>2026-04-27T13:59:35.006Z</time></trkpt><trkpt lat="39.54742207975582" lon="8.468602640662649"><ele>13.8</ele><time>2026-04-27T13:59:36.006Z</time></trkpt><trkpt lat="39.547397170122125" lon="8.468469716283238"><ele>13.4</ele><time>2026-04-27T13:59:37.006Z</time></trkpt><trkpt lat="39.547363966534625" lon="8.468340974446168"><ele>13.0</ele><time>2026-04-27T13:59:38.006Z</time></trkpt><trkpt lat="39.54731651919411" lon="8.468219960773476"><ele>13.0</ele><time>2026-04-27T13:59:39.007Z</time></trkpt><trkpt lat="39.54725931907766" lon="8.468112241392578"><ele>13.0</ele><time>2026-04-27T13:59:40.007Z</time></trkpt><trkpt lat="39.54718620011541" lon="8.468016244066943"><ele>13.0</ele><time>2026-04-27T13:59:41.007Z</time></trkpt><trkpt lat="39.54710216521912" lon="8.467915299085808"><ele>13.0</ele><time>2026-04-27T13:59:42.007Z</time></trkpt><trkpt lat="39.547021172772475" lon="8.46781608457334"><ele>13.0</ele><time>2026-04-27T13:59:43.007Z</time></trkpt><trkpt lat="39.54694405948022" lon="8.467707751070428"><ele>13.600000000000001</ele><time>2026-04-27T13:59:44.007Z</time></trkpt><trkpt lat="39.54687142939528" lon="8.467604319995736"><ele>14.200000000000001</ele><time>2026-04-27T13:59:45.007Z</time></trkpt><trkpt lat="39.546804588955965" lon="8.467493961795723"><ele>14.8</ele><time>2026-04-27T13:59:46.007Z</time></trkpt><trkpt lat="39.54674501165167" lon="8.46739672438771"><ele>15.4</ele><time>2026-04-27T13:59:47.007Z</time></trkpt><trkpt lat="39.5466771193303" lon="8.467315300605692"><ele>16.0</ele><time>2026-04-27T13:59:48.007Z</time></trkpt><trkpt lat="39.546598209033675" lon="8.46723946922203"><ele>16.0</ele><time>2026-04-27T13:59:49.007Z</time></trkpt><trkpt lat="39.54652145078122" lon="8.467146032151398"><ele>16.0</ele><time>2026-04-27T13:59:50.007Z</time></trkpt><trkpt lat="39.54645957693856" lon="8.46704820964819"><ele>16.0</ele><time>2026-04-27T13:59:51.007Z</time></trkpt><trkpt lat="39.54641717012805" lon="8.466955974552999"><ele>16.0</ele><time>2026-04-27T13:59:52.007Z</time></trkpt><trkpt lat="39.54637655937547" lon="8.466850943104664"><ele>16.0</ele><time>2026-04-27T13:59:53.007Z</time></trkpt><trkpt lat="39.54632513317003" lon="8.466750363446236"><ele>15.200000000000001</ele><time>2026-04-27T13:59:54.007Z</time></trkpt><trkpt lat="39.546261280405666" lon="8.466659973696482"><ele>14.400000000000002</ele><time>2026-04-27T13:59:55.007Z</time></trkpt><trkpt lat="39.54618651593465" lon="8.466577268497083"><ele>13.6</ele><time>2026-04-27T13:59:56.007Z</time></trkpt><trkpt lat="39.54610220337295" lon="8.466495567219006"><ele>12.8</ele><time>2026-04-27T13:59:57.007Z</time></trkpt><trkpt lat="39.54602738398203" lon="8.466399118960386"><ele>12.0</ele><time>2026-04-27T13:59:58.007Z</time></trkpt><trkpt lat="39.54596778904025" lon="8.466296269406694"><ele>11.833333333333334</ele><time>2026-04-27T13:59:59.007Z</time></trkpt><trkpt lat="39.545908191900274" lon="8.466189278248756"><ele>11.666666666666666</ele><time>2026-04-27T14:00:00.007Z</time></trkpt><trkpt lat="39.5458430179437" lon="8.466104615779397"><ele>11.5</ele><time>2026-04-27T14:00:01.007Z</time></trkpt><trkpt lat="39.54578799714329" lon="8.466057357806159"><ele>11.333333333333332</ele><time>2026-04-27T14:00:02.007Z</time></trkpt><trkpt lat="39.54575694348328" lon="8.465980022003174"><ele>11.166666666666666</ele><time>2026-04-27T14:00:03.007Z</time></trkpt><trkpt lat="39.54567576459403" lon="8.46595131171488"><ele>11.0</ele><time>2026-04-27T14:00:05.007Z</time></trkpt><trkpt lat="39.54558031427142" lon="8.465899720632104"><ele>11.0</ele><time>2026-04-27T14:00:07.007Z</time></trkpt><trkpt lat="39.545522291672356" lon="8.465861747867132"><ele>11.0</ele><time>2026-04-27T14:00:08.007Z</time></trkpt><trkpt lat="39.54546486209967" lon="8.465811506929706"><ele>11.0</ele><time>2026-04-27T14:00:09.007Z</time></trkpt><trkpt lat="39.545398786680266" lon="8.465746912028607"><ele>11.0</ele><time>2026-04-27T14:00:10.007Z</time></trkpt><trkpt lat="39.54533426614649" lon="8.465682764033794"><ele>11.0</ele><time>2026-04-27T14:00:11.007Z</time></trkpt><trkpt lat="39.54527114219657" lon="8.465619050706819"><ele>11.0</ele><time>2026-04-27T14:00:12.007Z</time></trkpt><trkpt lat="39.545214321203105" lon="8.465537516891445"><ele>10.200000000000001</ele><time>2026-04-27T14:00:13.007Z</time></trkpt><trkpt lat="39.54513993824022" lon="8.465447232563214"><ele>9.4</ele><time>2026-04-27T14:00:14.007Z</time></trkpt><trkpt lat="39.545063755767096" lon="8.465345643605746"><ele>8.6</ele><time>2026-04-27T14:00:15.007Z</time></trkpt><trkpt lat="39.54498834897642" lon="8.46523473002078"><ele>7.8</ele><time>2026-04-27T14:00:16.007Z</time></trkpt><trkpt lat="39.54492494035558" lon="8.465117927380426"><ele>7.0</ele><time>2026-04-27T14:00:17.007Z</time></trkpt><trkpt lat="39.54484264239797" lon="8.465020554692911"><ele>7.0</ele><time>2026-04-27T14:00:18.007Z</time></trkpt><trkpt lat="39.544813331690925" lon="8.46487275100727"><ele>7.0</ele><time>2026-04-27T14:00:19.007Z</time></trkpt><trkpt lat="39.54476329433319" lon="8.46473610504966"><ele>7.0</ele><time>2026-04-27T14:00:20.007Z</time></trkpt><trkpt lat="39.54472562480178" lon="8.464588570991383"><ele>7.0</ele><time>2026-04-27T14:00:21.007Z</time></trkpt><trkpt lat="39.54470413828857" lon="8.46444367609921"><ele>7.3999999999999995</ele><time>2026-04-27T14:00:22.007Z</time></trkpt><trkpt lat="39.54465830484079" lon="8.464309628688293"><ele>7.799999999999999</ele><time>2026-04-27T14:00:23.007Z</time></trkpt><trkpt lat="39.54461037872321" lon="8.464189989449164"><ele>8.2</ele><time>2026-04-27T14:00:24.007Z</time></trkpt><trkpt lat="39.54455699046525" lon="8.464088446881028"><ele>8.6</ele><time>2026-04-27T14:00:25.008Z</time></trkpt><trkpt lat="39.54450331140009" lon="8.464020302078909"><ele>9.0</ele><time>2026-04-27T14:00:26.008Z</time></trkpt><trkpt lat="39.544445260125" lon="8.463980618872888"><ele>9.2</ele><time>2026-04-27T14:00:27.008Z</time></trkpt><trkpt lat="39.54436759034705" lon="8.463948798443"><ele>9.4</ele><time>2026-04-27T14:00:28.008Z</time></trkpt><trkpt lat="39.5442767429265" lon="8.463917278247312"><ele>9.6</ele><time>2026-04-27T14:00:29.008Z</time></trkpt><trkpt lat="39.54418144690964" lon="8.463872885166152"><ele>9.8</ele><time>2026-04-27T14:00:30.008Z</time></trkpt><trkpt lat="39.54408604400194" lon="8.46382336724993"><ele>10.0</ele><time>2026-04-27T14:00:31.008Z</time></trkpt><trkpt lat="39.54399026734374" lon="8.463772247302948"><ele>10.0</ele><time>2026-04-27T14:00:32.008Z</time></trkpt><trkpt lat="39.543889619232736" lon="8.463720890261126"><ele>10.0</ele><time>2026-04-27T14:00:33.008Z</time></trkpt><trkpt lat="39.54378591918477" lon="8.46366935063144"><ele>10.0</ele><time>2026-04-27T14:00:34.008Z</time></trkpt><trkpt lat="39.54368005471441" lon="8.46361663743794"><ele>10.0</ele><time>2026-04-27T14:00:35.008Z</time></trkpt><trkpt lat="39.54357790970894" lon="8.46354815432773"><ele>10.0</ele><time>2026-04-27T14:00:36.008Z</time></trkpt><trkpt lat="39.54347386873378" lon="8.463499455607554"><ele>10.8</ele><time>2026-04-27T14:00:37.008Z</time></trkpt><trkpt lat="39.54337352097054" lon="8.463451261435166"><ele>11.6</ele><time>2026-04-27T14:00:38.008Z</time></trkpt><trkpt lat="39.543282337559006" lon="8.463402032270569"><ele>12.399999999999999</ele><time>2026-04-27T14:00:39.008Z</time></trkpt><trkpt lat="39.54320709489824" lon="8.46334211715018"><ele>13.2</ele><time>2026-04-27T14:00:40.008Z</time></trkpt><trkpt lat="39.54318066775643" lon="8.463235473289325"><ele>14.0</ele><time>2026-04-27T14:00:41.008Z</time></trkpt><trkpt lat="39.54312559191367" lon="8.463142749715407"><ele>14.0</ele><time>2026-04-27T14:00:42.008Z</time></trkpt><trkpt lat="39.5430535958791" lon="8.463057144242407"><ele>13.999999999999998</ele><time>2026-04-27T14:00:43.008Z</time></trkpt><trkpt lat="39.54298163566917" lon="8.462972401272161"><ele>13.999999999999998</ele><time>2026-04-27T14:00:44.008Z</time></trkpt><trkpt lat="39.542892212697645" lon="8.462900002592065"><ele>14.0</ele><time>2026-04-27T14:00:45.008Z</time></trkpt><trkpt lat="39.54280056749061" lon="8.462817260708308"><ele>14.0</ele><time>2026-04-27T14:00:46.008Z</time></trkpt><trkpt lat="39.5427265737454" lon="8.462730754289895"><ele>15.333333333333334</ele><time>2026-04-27T14:00:47.008Z</time></trkpt><trkpt lat="39.54267766884171" lon="8.462647810662668"><ele>16.666666666666668</ele><time>2026-04-27T14:00:48.008Z</time></trkpt><trkpt lat="39.54264797818462" lon="8.462565716614492"><ele>18.0</ele><time>2026-04-27T14:00:49.008Z</time></trkpt><trkpt lat="39.542617752023794" lon="8.462476568581517"><ele>19.333333333333332</ele><time>2026-04-27T14:00:50.008Z</time></trkpt><trkpt lat="39.542575464436396" lon="8.462399333755611"><ele>20.666666666666664</ele><time>2026-04-27T14:00:51.008Z</time></trkpt><trkpt lat="39.5425381793904" lon="8.462326820871105"><ele>22.0</ele><time>2026-04-27T14:00:52.008Z</time></trkpt><trkpt lat="39.542455009730794" lon="8.462292901195571"><ele>22.0</ele><time>2026-04-27T14:00:53.008Z</time></trkpt><trkpt lat="39.54235145657845" lon="8.462286955203375"><ele>22.0</ele><time>2026-04-27T14:00:54.008Z</time></trkpt><trkpt lat="39.542252043970976" lon="8.46225323102403"><ele>22.0</ele><time>2026-04-27T14:00:55.008Z</time></trkpt><trkpt lat="39.54218189409568" lon="8.462177772341395"><ele>22.0</ele><time>2026-04-27T14:00:56.008Z</time></trkpt><trkpt lat="39.54210910682774" lon="8.462138520193777"><ele>22.0</ele><time>2026-04-27T14:00:57.008Z</time></trkpt><trkpt lat="39.542052515136554" lon="8.462074834570839"><ele>23.8</ele><time>2026-04-27T14:00:58.008Z</time></trkpt><trkpt lat="39.54199038062092" lon="8.462027305075678"><ele>25.6</ele><time>2026-04-27T14:00:59.008Z</time></trkpt><trkpt lat="39.54191132190027" lon="8.461991042860133"><ele>27.400000000000002</ele><time>2026-04-27T14:01:00.008Z</time></trkpt><trkpt lat="39.54181207908613" lon="8.461983890510288"><ele>29.200000000000003</ele><time>2026-04-27T14:01:01.008Z</time></trkpt><trkpt lat="39.54170536308188" lon="8.462000726754347"><ele>31.0</ele><time>2026-04-27T14:01:02.008Z</time></trkpt><trkpt lat="39.541597722830545" lon="8.462020470129968"><ele>31.0</ele><time>2026-04-27T14:01:03.008Z</time></trkpt><trkpt lat="39.54149150020944" lon="8.462026290441806"><ele>31.0</ele><time>2026-04-27T14:01:04.008Z</time></trkpt><trkpt lat="39.541390539335055" lon="8.461986303026913"><ele>31.0</ele><time>2026-04-27T14:01:05.008Z</time></trkpt><trkpt lat="39.541277631220616" lon="8.46196087549158"><ele>31.0</ele><time>2026-04-27T14:01:06.008Z</time></trkpt><trkpt lat="39.541166536780395" lon="8.461938658651487"><ele>31.0</ele><time>2026-04-27T14:01:07.008Z</time></trkpt><trkpt lat="39.54105380054501" lon="8.461918666288492"><ele>33.8</ele><time>2026-04-27T14:01:08.008Z</time></trkpt><trkpt lat="39.54093789359443" lon="8.461907999421847"><ele>36.6</ele><time>2026-04-27T14:01:09.008Z</time></trkpt><trkpt lat="39.54082584277572" lon="8.46190355585651"><ele>39.4</ele><time>2026-04-27T14:01:10.008Z</time></trkpt><trkpt lat="39.540715999111605" lon="8.461890025022688"><ele>42.2</ele><time>2026-04-27T14:01:11.008Z</time></trkpt><trkpt lat="39.54061663711184" lon="8.461883390224772"><ele>45.0</ele><time>2026-04-27T14:01:12.009Z</time></trkpt><trkpt lat="39.54053128176267" lon="8.461874558115364"><ele>45.0</ele><time>2026-04-27T14:01:13.009Z</time></trkpt><trkpt lat="39.54045429058559" lon="8.461862400299575"><ele>45.0</ele><time>2026-04-27T14:01:14.009Z</time></trkpt><trkpt lat="39.54038668460578" lon="8.461861131721717"><ele>45.0</ele><time>2026-04-27T14:01:15.009Z</time></trkpt><trkpt lat="39.540320165398654" lon="8.46185581346247"><ele>45.0</ele><time>2026-04-27T14:01:16.009Z</time></trkpt><trkpt lat="39.540252875050435" lon="8.461848602475408"><ele>45.0</ele><time>2026-04-27T14:01:17.009Z</time></trkpt><trkpt lat="39.5401854752973" lon="8.461841945788045"><ele>45.0</ele><time>2026-04-27T14:01:18.009Z</time></trkpt><trkpt lat="39.54011700632676" lon="8.461842728747941"><ele>45.0</ele><time>2026-04-27T14:01:19.009Z</time></trkpt><trkpt lat="39.54005261397612" lon="8.461866888744634"><ele>44.833333333333336</ele><time>2026-04-27T14:01:20.009Z</time></trkpt><trkpt lat="39.53998001315322" lon="8.461925004154045"><ele>44.666666666666664</ele><time>2026-04-27T14:01:21.009Z</time></trkpt><trkpt lat="39.53988439336269" lon="8.461964102696166"><ele>44.5</ele><time>2026-04-27T14:01:22.009Z</time></trkpt><trkpt lat="39.53980603945843" lon="8.46201036467685"><ele>44.33333333333333</ele><time>2026-04-27T14:01:23.009Z</time></trkpt><trkpt lat="39.53974045117149" lon="8.4620736874165"><ele>44.166666666666664</ele><time>2026-04-27T14:01:24.009Z</time></trkpt><trkpt lat="39.53969129929668" lon="8.462150561923188"><ele>44.0</ele><time>2026-04-27T14:01:25.009Z</time></trkpt><trkpt lat="39.53965314764306" lon="8.462259938570071"><ele>44.0</ele><time>2026-04-27T14:01:26.009Z</time></trkpt><trkpt lat="39.53962953342301" lon="8.462398518053535"><ele>44.0</ele><time>2026-04-27T14:01:27.009Z</time></trkpt><trkpt lat="39.539600206008245" lon="8.462512955755976"><ele>44.0</ele><time>2026-04-27T14:01:28.009Z</time></trkpt><trkpt lat="39.53955964320079" lon="8.462634069766823"><ele>44.0</ele><time>2026-04-27T14:01:30.009Z</time></trkpt><trkpt lat="39.539449721343416" lon="8.462659816437489"><ele>44.0</ele><time>2026-04-27T14:01:32.009Z</time></trkpt><trkpt lat="39.539383658648376" lon="8.462631839944962"><ele>42.5</ele><time>2026-04-27T14:01:33.009Z</time></trkpt><trkpt lat="39.5393090136416" lon="8.462582207070126"><ele>41.0</ele><time>2026-04-27T14:01:34.009Z</time></trkpt><trkpt lat="39.539229842572986" lon="8.462521844584858"><ele>39.5</ele><time>2026-04-27T14:01:35.009Z</time></trkpt><trkpt lat="39.53914593649124" lon="8.462490347048462"><ele>38.0</ele><time>2026-04-27T14:01:36.009Z</time></trkpt><trkpt lat="39.53906803077957" lon="8.462481403937103"><ele>36.5</ele><time>2026-04-27T14:01:37.009Z</time></trkpt><trkpt lat="39.538992940064084" lon="8.462495488527757"><ele>35.0</ele><time>2026-04-27T14:01:38.009Z</time></trkpt><trkpt lat="39.53891645617973" lon="8.462523162331847"><ele>35.0</ele><time>2026-04-27T14:01:39.009Z</time></trkpt><trkpt lat="39.53884586815473" lon="8.462541869857436"><ele>35.0</ele><time>2026-04-27T14:01:40.009Z</time></trkpt><trkpt lat="39.53874678265411" lon="8.462659098307626"><ele>35.0</ele><time>2026-04-27T14:01:42.009Z</time></trkpt><trkpt lat="39.53867913152657" lon="8.462716787500206"><ele>35.0</ele><time>2026-04-27T14:01:43.009Z</time></trkpt><trkpt lat="39.53861119586256" lon="8.462798707119262"><ele>35.0</ele><time>2026-04-27T14:01:44.009Z</time></trkpt><trkpt lat="39.53853601390609" lon="8.46288752926575"><ele>35.0</ele><time>2026-04-27T14:01:45.009Z</time></trkpt><trkpt lat="39.53845707718303" lon="8.462980787633803"><ele>35.0</ele><time>2026-04-27T14:01:46.009Z</time></trkpt><trkpt lat="39.53839976051828" lon="8.463078190477088"><ele>35.0</ele><time>2026-04-27T14:01:47.009Z</time></trkpt><trkpt lat="39.53833525569294" lon="8.463167120034596"><ele>35.0</ele><time>2026-04-27T14:01:48.009Z</time></trkpt><trkpt lat="39.53828148525521" lon="8.463262258014597"><ele>35.0</ele><time>2026-04-27T14:01:49.009Z</time></trkpt><trkpt lat="39.53823100087315" lon="8.463362311744039"><ele>35.0</ele><time>2026-04-27T14:01:50.009Z</time></trkpt><trkpt lat="39.53817667973068" lon="8.463452989910632"><ele>35.0</ele><time>2026-04-27T14:01:51.009Z</time></trkpt><trkpt lat="39.53813873125629" lon="8.463530232403336"><ele>35.0</ele><time>2026-04-27T14:01:52.009Z</time></trkpt><trkpt lat="39.53808441370338" lon="8.46364608108724"><ele>35.0</ele><time>2026-04-27T14:01:54.009Z</time></trkpt><trkpt lat="39.53801127733067" lon="8.463670778578567"><ele>35.0</ele><time>2026-04-27T14:01:56.009Z</time></trkpt><trkpt lat="39.537962158839974" lon="8.463618813679378"><ele>35.0</ele><time>2026-04-27T14:01:57.009Z</time></trkpt><trkpt lat="39.53785239114044" lon="8.463588125923057"><ele>32.6</ele><time>2026-04-27T14:01:59.009Z</time></trkpt><trkpt lat="39.537770276872244" lon="8.46364008817348"><ele>30.2</ele><time>2026-04-27T14:02:01.01Z</time></trkpt><trkpt lat="39.537719118439256" lon="8.463800390035267"><ele>27.799999999999997</ele><time>2026-04-27T14:02:03.01Z</time></trkpt><trkpt lat="39.53769490264906" lon="8.463912812180245"><ele>25.4</ele><time>2026-04-27T14:02:04.01Z</time></trkpt><trkpt lat="39.53768012097178" lon="8.464018717541776"><ele>23.0</ele><time>2026-04-27T14:02:05.01Z</time></trkpt><trkpt lat="39.53766777364301" lon="8.464118142553646"><ele>23.0</ele><time>2026-04-27T14:02:06.01Z</time></trkpt><trkpt lat="39.53763100224667" lon="8.464193626706464"><ele>23.0</ele><time>2026-04-27T14:02:07.01Z</time></trkpt><trkpt lat="39.53755954614832" lon="8.464323350848193"><ele>23.0</ele><time>2026-04-27T14:02:09.01Z</time></trkpt><trkpt lat="39.537474540316026" lon="8.46433456383686"><ele>23.0</ele><time>2026-04-27T14:02:10.01Z</time></trkpt><trkpt lat="39.53739484514259" lon="8.464389679393774"><ele>23.0</ele><time>2026-04-27T14:02:11.01Z</time></trkpt><trkpt lat="39.537321678533154" lon="8.464463052772048"><ele>23.0</ele><time>2026-04-27T14:02:12.01Z</time></trkpt><trkpt lat="39.53723955986322" lon="8.464494848885806"><ele>23.0</ele><time>2026-04-27T14:02:13.01Z</time></trkpt><trkpt lat="39.53716431377049" lon="8.464557014875021"><ele>23.0</ele><time>2026-04-27T14:02:14.01Z</time></trkpt><trkpt lat="39.537088285282174" lon="8.464623407807403"><ele>23.0</ele><time>2026-04-27T14:02:15.01Z</time></trkpt><trkpt lat="39.53701152841254" lon="8.464685921501536"><ele>23.0</ele><time>2026-04-27T14:02:16.01Z</time></trkpt><trkpt lat="39.536946118532605" lon="8.464732931335083"><ele>23.0</ele><time>2026-04-27T14:02:17.01Z</time></trkpt><trkpt lat="39.536875721278655" lon="8.464757231395751"><ele>22.666666666666668</ele><time>2026-04-27T14:02:18.01Z</time></trkpt><trkpt lat="39.5367827303379" lon="8.464753909655242"><ele>22.333333333333336</ele><time>2026-04-27T14:02:19.01Z</time></trkpt><trkpt lat="39.536701071698175" lon="8.46478286079861"><ele>22.0</ele><time>2026-04-27T14:02:20.01Z</time></trkpt><trkpt lat="39.53663024572701" lon="8.464839375486097"><ele>21.666666666666668</ele><time>2026-04-27T14:02:21.01Z</time></trkpt><trkpt lat="39.53655768948911" lon="8.464898296013006"><ele>21.333333333333332</ele><time>2026-04-27T14:02:22.01Z</time></trkpt><trkpt lat="39.53649012641674" lon="8.464963517785728"><ele>21.0</ele><time>2026-04-27T14:02:23.01Z</time></trkpt><trkpt lat="39.53641874431317" lon="8.465043068805496"><ele>21.0</ele><time>2026-04-27T14:02:24.01Z</time></trkpt><trkpt lat="39.53633504776939" lon="8.465109306056497"><ele>21.0</ele><time>2026-04-27T14:02:25.01Z</time></trkpt><trkpt lat="39.53624933455921" lon="8.465167790785184"><ele>21.0</ele><time>2026-04-27T14:02:26.01Z</time></trkpt><trkpt lat="39.53616796521181" lon="8.465236497491235"><ele>21.0</ele><time>2026-04-27T14:02:27.01Z</time></trkpt><trkpt lat="39.53608708248911" lon="8.465297940425158"><ele>21.0</ele><time>2026-04-27T14:02:28.01Z</time></trkpt><trkpt lat="39.53601142097685" lon="8.465365490874357"><ele>20.400000000000002</ele><time>2026-04-27T14:02:29.01Z</time></trkpt><trkpt lat="39.53593285108407" lon="8.465436235161055"><ele>19.8</ele><time>2026-04-27T14:02:30.01Z</time></trkpt><trkpt lat="39.5358526995765" lon="8.465506829392671"><ele>19.200000000000003</ele><time>2026-04-27T14:02:31.01Z</time></trkpt><trkpt lat="39.53577490508054" lon="8.46556635330429"><ele>18.6</ele><time>2026-04-27T14:02:32.01Z</time></trkpt><trkpt lat="39.53568805442868" lon="8.465605998587838"><ele>18.0</ele><time>2026-04-27T14:02:33.01Z</time></trkpt><trkpt lat="39.53559791423504" lon="8.46564536892691"><ele>18.2</ele><time>2026-04-27T14:02:34.01Z</time></trkpt><trkpt lat="39.53550982151198" lon="8.465681715112998"><ele>18.4</ele><time>2026-04-27T14:02:35.01Z</time></trkpt><trkpt lat="39.53541166949429" lon="8.46571994505319"><ele>18.599999999999998</ele><time>2026-04-27T14:02:36.01Z</time></trkpt><trkpt lat="39.53532193173473" lon="8.465750571782115"><ele>18.8</ele><time>2026-04-27T14:02:37.01Z</time></trkpt><trkpt lat="39.535234008377735" lon="8.465771859169198"><ele>19.0</ele><time>2026-04-27T14:02:38.01Z</time></trkpt><trkpt lat="39.53513929615496" lon="8.465793438413256"><ele>19.0</ele><time>2026-04-27T14:02:39.01Z</time></trkpt><trkpt lat="39.535042791972124" lon="8.465793740196338"><ele>19.0</ele><time>2026-04-27T14:02:40.01Z</time></trkpt><trkpt lat="39.534939990985336" lon="8.465814681325238"><ele>19.0</ele><time>2026-04-27T14:02:41.01Z</time></trkpt><trkpt lat="39.534844305338176" lon="8.465814969300608"><ele>19.0</ele><time>2026-04-27T14:02:42.01Z</time></trkpt><trkpt lat="39.5347407499057" lon="8.465831939641264"><ele>19.0</ele><time>2026-04-27T14:02:43.01Z</time></trkpt><trkpt lat="39.53464188251292" lon="8.465841668673525"><ele>19.0</ele><time>2026-04-27T14:02:44.01Z</time></trkpt><trkpt lat="39.534556351500626" lon="8.465841907868787"><ele>19.0</ele><time>2026-04-27T14:02:45.01Z</time></trkpt><trkpt lat="39.534475738359895" lon="8.46583515329081"><ele>19.0</ele><time>2026-04-27T14:02:46.01Z</time></trkpt><trkpt lat="39.53440929396098" lon="8.465801884581676"><ele>19.0</ele><time>2026-04-27T14:02:47.01Z</time></trkpt><trkpt lat="39.534347897072934" lon="8.465780855395113"><ele>19.0</ele><time>2026-04-27T14:02:48.011Z</time></trkpt><trkpt lat="39.53426565533346" lon="8.4657200384284"><ele>19.0</ele><time>2026-04-27T14:02:50.011Z</time></trkpt><trkpt lat="39.53419504320461" lon="8.465654591954195"><ele>18.833333333333332</ele><time>2026-04-27T14:02:52.011Z</time></trkpt><trkpt lat="39.53414253972794" lon="8.465592932544123"><ele>18.666666666666664</ele><time>2026-04-27T14:02:54.011Z</time></trkpt><trkpt lat="39.534128226371934" lon="8.46548988561821"><ele>18.5</ele><time>2026-04-27T14:02:57.011Z</time></trkpt><trkpt lat="39.53409276711591" lon="8.465376184011234"><ele>18.333333333333332</ele><time>2026-04-27T14:03:00.011Z</time></trkpt><trkpt lat="39.53402910882862" lon="8.465282470361931"><ele>18.166666666666668</ele><time>2026-04-27T14:03:02.011Z</time></trkpt><trkpt lat="39.53396782929681" lon="8.465243909664697"><ele>18.0</ele><time>2026-04-27T14:03:03.011Z</time></trkpt><trkpt lat="39.53389948155434" lon="8.465233415909475"><ele>17.833333333333332</ele><time>2026-04-27T14:03:04.011Z</time></trkpt><trkpt lat="39.53382417878718" lon="8.465234928618893"><ele>17.666666666666668</ele><time>2026-04-27T14:03:05.011Z</time></trkpt><trkpt lat="39.53373881898121" lon="8.465225305968268"><ele>17.5</ele><time>2026-04-27T14:03:06.011Z</time></trkpt><trkpt lat="39.53367548361609" lon="8.465166161910384"><ele>17.333333333333336</ele><time>2026-04-27T14:03:07.011Z</time></trkpt><trkpt lat="39.53360661963073" lon="8.465136083118779"><ele>17.166666666666668</ele><time>2026-04-27T14:03:08.011Z</time></trkpt><trkpt lat="39.533554203041895" lon="8.465082472518976"><ele>17.0</ele><time>2026-04-27T14:03:09.011Z</time></trkpt><trkpt lat="39.53348189105281" lon="8.46502457967201"><ele>18.0</ele><time>2026-04-27T14:03:10.011Z</time></trkpt><trkpt lat="39.53339704559942" lon="8.464969687983784"><ele>19.0</ele><time>2026-04-27T14:03:11.011Z</time></trkpt><trkpt lat="39.53330157998988" lon="8.464942217375386"><ele>20.0</ele><time>2026-04-27T14:03:12.011Z</time></trkpt><trkpt lat="39.533197034414286" lon="8.464927006161188"><ele>21.0</ele><time>2026-04-27T14:03:13.011Z</time></trkpt><trkpt lat="39.53308645686209" lon="8.464925068527506"><ele>22.0</ele><time>2026-04-27T14:03:14.011Z</time></trkpt><trkpt lat="39.532986939607746" lon="8.464932675643865"><ele>22.0</ele><time>2026-04-27T14:03:15.011Z</time></trkpt><trkpt lat="39.53292215063795" lon="8.46493650477933"><ele>22.0</ele><time>2026-04-27T14:03:16.011Z</time></trkpt><trkpt lat="39.53282611023889" lon="8.46493311701396"><ele>22.0</ele><time>2026-04-27T14:03:19.011Z</time></trkpt><trkpt lat="39.5327611075785" lon="8.464971557714602"><ele>22.0</ele><time>2026-04-27T14:04:24.013Z</time></trkpt><trkpt lat="39.53271963278077" lon="8.464893317346656"><ele>22.0</ele><time>2026-04-27T14:04:27.013Z</time></trkpt><trkpt lat="39.53277740362682" lon="8.46484001459585"><ele>22.0</ele><time>2026-04-27T14:04:29.013Z</time></trkpt><trkpt lat="39.53286891335827" lon="8.464809017178679"><ele>22.0</ele><time>2026-04-27T14:04:31.013Z</time></trkpt><trkpt lat="39.532984147853185" lon="8.464744980268462"><ele>22.0</ele><time>2026-04-27T14:04:33.013Z</time></trkpt><trkpt lat="39.53305547454383" lon="8.464705001486976"><ele>22.0</ele><time>2026-04-27T14:04:34.013Z</time></trkpt><trkpt lat="39.533131962279846" lon="8.464662915032402"><ele>22.0</ele><time>2026-04-27T14:04:35.013Z</time></trkpt><trkpt lat="39.53319647538101" lon="8.464602531139098"><ele>22.0</ele><time>2026-04-27T14:04:36.013Z</time></trkpt><trkpt lat="39.53328428939893" lon="8.464555651916339"><ele>23.6</ele><time>2026-04-27T14:04:37.013Z</time></trkpt><trkpt lat="39.53336182350225" lon="8.46451175126734"><ele>25.200000000000003</ele><time>2026-04-27T14:04:38.013Z</time></trkpt><trkpt lat="39.53342840452622" lon="8.464467038155707"><ele>26.8</ele><time>2026-04-27T14:04:39.013Z</time></trkpt><trkpt lat="39.53351284555929" lon="8.464387237119272"><ele>28.4</ele><time>2026-04-27T14:04:40.013Z</time></trkpt><trkpt lat="39.53359657377461" lon="8.464298280372512"><ele>30.0</ele><time>2026-04-27T14:04:41.013Z</time></trkpt><trkpt lat="39.53368345775563" lon="8.46421284130061"><ele>28.4</ele><time>2026-04-27T14:04:42.013Z</time></trkpt><trkpt lat="39.53377382932832" lon="8.464140991083493"><ele>26.8</ele><time>2026-04-27T14:04:43.013Z</time></trkpt><trkpt lat="39.53386021827123" lon="8.464064702940057"><ele>25.200000000000003</ele><time>2026-04-27T14:04:44.013Z</time></trkpt><trkpt lat="39.53394504421283" lon="8.463987735603398"><ele>23.6</ele><time>2026-04-27T14:04:45.013Z</time></trkpt><trkpt lat="39.534033575515124" lon="8.463909295168747"><ele>22.0</ele><time>2026-04-27T14:04:46.013Z</time></trkpt><trkpt lat="39.534113082011075" lon="8.463840130166622"><ele>24.5</ele><time>2026-04-27T14:04:47.013Z</time></trkpt><trkpt lat="39.534219195449325" lon="8.463768785585879"><ele>27.0</ele><time>2026-04-27T14:04:48.013Z</time></trkpt><trkpt lat="39.534317249850105" lon="8.46369547866798"><ele>29.5</ele><time>2026-04-27T14:04:49.013Z</time></trkpt><trkpt lat="39.53441998959166" lon="8.46363375026993"><ele>32.0</ele><time>2026-04-27T14:04:50.013Z</time></trkpt><trkpt lat="39.53451540403774" lon="8.463572665205046"><ele>29.8</ele><time>2026-04-27T14:04:51.013Z</time></trkpt><trkpt lat="39.534596820257946" lon="8.46349143480701"><ele>27.6</ele><time>2026-04-27T14:04:52.013Z</time></trkpt><trkpt lat="39.5346722396424" lon="8.463388648961939"><ele>25.400000000000002</ele><time>2026-04-27T14:04:53.013Z</time></trkpt><trkpt lat="39.53474794026649" lon="8.463287352605777"><ele>23.200000000000003</ele><time>2026-04-27T14:04:54.013Z</time></trkpt><trkpt lat="39.53483381377663" lon="8.463186298215595"><ele>21.0</ele><time>2026-04-27T14:04:55.013Z</time></trkpt><trkpt lat="39.53491410909127" lon="8.463070837461764"><ele>21.0</ele><time>2026-04-27T14:04:56.013Z</time></trkpt><trkpt lat="39.53499347708506" lon="8.462951576853174"><ele>21.0</ele><time>2026-04-27T14:04:57.013Z</time></trkpt><trkpt lat="39.53506895668249" lon="8.462826337677686"><ele>21.0</ele><time>2026-04-27T14:04:58.013Z</time></trkpt><trkpt lat="39.53514676383491" lon="8.462708003586865"><ele>21.0</ele><time>2026-04-27T14:04:59.013Z</time></trkpt><trkpt lat="39.5352292145798" lon="8.46258234294272"><ele>20.5</ele><time>2026-04-27T14:05:00.013Z</time></trkpt><trkpt lat="39.53530766476806" lon="8.46245437199137"><ele>20.0</ele><time>2026-04-27T14:05:01.013Z</time></trkpt><trkpt lat="39.535380135744305" lon="8.462328454353653"><ele>19.5</ele><time>2026-04-27T14:05:02.013Z</time></trkpt><trkpt lat="39.535454835754145" lon="8.462198714280635"><ele>19.0</ele><time>2026-04-27T14:05:03.013Z</time></trkpt><trkpt lat="39.53552882865764" lon="8.462060721540933"><ele>19.0</ele><time>2026-04-27T14:05:04.013Z</time></trkpt><trkpt lat="39.53560455617705" lon="8.46192610107106"><ele>19.0</ele><time>2026-04-27T14:05:05.013Z</time></trkpt><trkpt lat="39.535676612604654" lon="8.461788432248511"><ele>19.0</ele><time>2026-04-27T14:05:06.013Z</time></trkpt><trkpt lat="39.535750643077975" lon="8.46165531118499"><ele>19.0</ele><time>2026-04-27T14:05:07.013Z</time></trkpt><trkpt lat="39.53581159981608" lon="8.46152500009768"><ele>19.0</ele><time>2026-04-27T14:05:08.014Z</time></trkpt><trkpt lat="39.535873160067545" lon="8.461390420416864"><ele>19.0</ele><time>2026-04-27T14:05:09.014Z</time></trkpt><trkpt lat="39.53593276315737" lon="8.461261565899207"><ele>19.0</ele><time>2026-04-27T14:05:10.014Z</time></trkpt><trkpt lat="39.53599221074384" lon="8.461130349832345"><ele>19.0</ele><time>2026-04-27T14:05:11.014Z</time></trkpt><trkpt lat="39.536048550965546" lon="8.460998136555792"><ele>19.4</ele><time>2026-04-27T14:05:12.014Z</time></trkpt><trkpt lat="39.536095993897995" lon="8.460867522763985"><ele>19.799999999999997</ele><time>2026-04-27T14:05:13.014Z</time></trkpt><trkpt lat="39.53613349698802" lon="8.460741748461723"><ele>20.200000000000003</ele><time>2026-04-27T14:05:14.014Z</time></trkpt><trkpt lat="39.53615198007067" lon="8.460611878523101"><ele>20.6</ele><time>2026-04-27T14:05:15.014Z</time></trkpt><trkpt lat="39.53616738240089" lon="8.460471862766068"><ele>21.0</ele><time>2026-04-27T14:05:16.014Z</time></trkpt><trkpt lat="39.53619119126993" lon="8.460325932576238"><ele>21.8</ele><time>2026-04-27T14:05:17.014Z</time></trkpt><trkpt lat="39.53621834744208" lon="8.46016922868099"><ele>22.6</ele><time>2026-04-27T14:05:18.014Z</time></trkpt><trkpt lat="39.53623835942079" lon="8.460027499831929"><ele>23.4</ele><time>2026-04-27T14:05:19.014Z</time></trkpt><trkpt lat="39.536252587864745" lon="8.459896845458179"><ele>24.2</ele><time>2026-04-27T14:05:20.014Z</time></trkpt><trkpt lat="39.53626350462897" lon="8.459760942308169"><ele>25.0</ele><time>2026-04-27T14:05:21.014Z</time></trkpt><trkpt lat="39.53628429446772" lon="8.459610622945611"><ele>23.0</ele><time>2026-04-27T14:05:22.014Z</time></trkpt><trkpt lat="39.536321402172575" lon="8.459444984580232"><ele>21.0</ele><time>2026-04-27T14:05:23.014Z</time></trkpt><trkpt lat="39.53636793191607" lon="8.459281524870919"><ele>19.0</ele><time>2026-04-27T14:05:24.014Z</time></trkpt><trkpt lat="39.53642589033499" lon="8.459127838696611"><ele>17.0</ele><time>2026-04-27T14:05:25.014Z</time></trkpt><trkpt lat="39.536489324975506" lon="8.458969382074557"><ele>17.0</ele><time>2026-04-27T14:05:26.014Z</time></trkpt><trkpt lat="39.53655032960893" lon="8.458816783684023"><ele>17.0</ele><time>2026-04-27T14:05:27.014Z</time></trkpt><trkpt lat="39.536606900124006" lon="8.458677038868661"><ele>17.0</ele><time>2026-04-27T14:05:28.014Z</time></trkpt><trkpt lat="39.536658849406564" lon="8.458557587108166"><ele>17.0</ele><time>2026-04-27T14:05:29.014Z</time></trkpt><trkpt lat="39.536712184741965" lon="8.458426248708069"><ele>16.666666666666668</ele><time>2026-04-27T14:05:30.014Z</time></trkpt><trkpt lat="39.53677145479932" lon="8.458341047820651"><ele>16.333333333333336</ele><time>2026-04-27T14:05:31.014Z</time></trkpt><trkpt lat="39.53684932201707" lon="8.458275140294335"><ele>16.0</ele><time>2026-04-27T14:05:32.014Z</time></trkpt><trkpt lat="39.53693782226779" lon="8.458256307039093"><ele>15.666666666666668</ele><time>2026-04-27T14:05:33.014Z</time></trkpt><trkpt lat="39.53702328299168" lon="8.45822811383781"><ele>15.333333333333334</ele><time>2026-04-27T14:05:34.014Z</time></trkpt><trkpt lat="39.537093607732274" lon="8.458204866739898"><ele>15.0</ele><time>2026-04-27T14:05:35.014Z</time></trkpt><trkpt lat="39.53715036053708" lon="8.4581683343556"><ele>15.0</ele><time>2026-04-27T14:05:36.014Z</time></trkpt><trkpt lat="39.53727539429428" lon="8.45815112674592"><ele>15.0</ele><time>2026-04-27T14:05:38.014Z</time></trkpt><trkpt lat="39.53733939740025" lon="8.458122242453443"><ele>15.0</ele><time>2026-04-27T14:05:39.014Z</time></trkpt><trkpt lat="39.537413890062226" lon="8.45809954114654"><ele>15.0</ele><time>2026-04-27T14:05:40.014Z</time></trkpt><trkpt lat="39.53748542567099" lon="8.458046465988437"><ele>15.0</ele><time>2026-04-27T14:05:41.014Z</time></trkpt><trkpt lat="39.537539212948516" lon="8.457975573415782"><ele>15.0</ele><time>2026-04-27T14:05:42.014Z</time></trkpt><trkpt lat="39.53758157757417" lon="8.45787314338826"><ele>14.75</ele><time>2026-04-27T14:05:43.014Z</time></trkpt><trkpt lat="39.53762757138546" lon="8.457748538617771"><ele>14.5</ele><time>2026-04-27T14:05:44.014Z</time></trkpt><trkpt lat="39.537679564791155" lon="8.457625104872474"><ele>14.25</ele><time>2026-04-27T14:05:45.014Z</time></trkpt><trkpt lat="39.537738555427225" lon="8.457499159600356"><ele>14.0</ele><time>2026-04-27T14:05:46.014Z</time></trkpt><trkpt lat="39.537819390379774" lon="8.457378913084018"><ele>13.75</ele><time>2026-04-27T14:05:47.014Z</time></trkpt><trkpt lat="39.5379019604563" lon="8.457240611798106"><ele>13.5</ele><time>2026-04-27T14:05:48.014Z</time></trkpt><trkpt lat="39.53798591107459" lon="8.457107978068423"><ele>13.25</ele><time>2026-04-27T14:05:49.014Z</time></trkpt><trkpt lat="39.5380640668272" lon="8.4569747747382"><ele>13.0</ele><time>2026-04-27T14:05:50.014Z</time></trkpt><trkpt lat="39.53813425486153" lon="8.456851735294824"><ele>12.4</ele><time>2026-04-27T14:05:51.014Z</time></trkpt><trkpt lat="39.53820101701556" lon="8.456734171846152"><ele>11.8</ele><time>2026-04-27T14:05:52.014Z</time></trkpt><trkpt lat="39.538270255550934" lon="8.456630789758606"><ele>11.2</ele><time>2026-04-27T14:05:53.014Z</time></trkpt><trkpt lat="39.538326932899544" lon="8.456516550060174"><ele>10.6</ele><time>2026-04-27T14:05:54.015Z</time></trkpt><trkpt lat="39.53839172583485" lon="8.456399822395742"><ele>10.0</ele><time>2026-04-27T14:05:55.015Z</time></trkpt><trkpt lat="39.53846184460753" lon="8.45627184820751"><ele>10.75</ele><time>2026-04-27T14:05:56.015Z</time></trkpt><trkpt lat="39.53854206334853" lon="8.456160017944931"><ele>11.5</ele><time>2026-04-27T14:05:57.015Z</time></trkpt><trkpt lat="39.53862185465346" lon="8.4560475984428"><ele>12.25</ele><time>2026-04-27T14:05:58.015Z</time></trkpt><trkpt lat="39.53871221151613" lon="8.455945307867097"><ele>13.0</ele><time>2026-04-27T14:05:59.015Z</time></trkpt><trkpt lat="39.53879802822867" lon="8.455849384180203"><ele>12.999999999999998</ele><time>2026-04-27T14:06:00.015Z</time></trkpt><trkpt lat="39.538861492225614" lon="8.455749059568776"><ele>13.0</ele><time>2026-04-27T14:06:01.015Z</time></trkpt><trkpt lat="39.5389244535097" lon="8.455644774159687"><ele>13.0</ele><time>2026-04-27T14:06:02.015Z</time></trkpt><trkpt lat="39.53896015894277" lon="8.455554157365697"><ele>13.0</ele><time>2026-04-27T14:06:03.015Z</time></trkpt><trkpt lat="39.53897319335315" lon="8.45545837680562"><ele>12.999999999999998</ele><time>2026-04-27T14:06:04.015Z</time></trkpt><trkpt lat="39.53897974744932" lon="8.45537174070201"><ele>13.0</ele><time>2026-04-27T14:06:05.015Z</time></trkpt><trkpt lat="39.538961463929056" lon="8.45527754124747"><ele>12.600000000000001</ele><time>2026-04-27T14:06:06.015Z</time></trkpt><trkpt lat="39.53895237110419" lon="8.455174383584856"><ele>12.200000000000001</ele><time>2026-04-27T14:06:07.015Z</time></trkpt><trkpt lat="39.53897058191678" lon="8.455050916161566"><ele>11.8</ele><time>2026-04-27T14:06:09.015Z</time></trkpt><trkpt lat="39.53903635073239" lon="8.454945286548044"><ele>11.4</ele><time>2026-04-27T14:06:11.015Z</time></trkpt><trkpt lat="39.53908383865106" lon="8.454790288314198"><ele>11.0</ele><time>2026-04-27T14:06:13.015Z</time></trkpt><trkpt lat="39.53910908607209" lon="8.454707469353085"><ele>11.600000000000001</ele><time>2026-04-27T14:06:14.015Z</time></trkpt><trkpt lat="39.53914227314515" lon="8.454610964609666"><ele>12.2</ele><time>2026-04-27T14:06:15.015Z</time></trkpt><trkpt lat="39.53917657883554" lon="8.45450800737959"><ele>12.799999999999999</ele><time>2026-04-27T14:06:16.015Z</time></trkpt><trkpt lat="39.53921387415396" lon="8.454395717228154"><ele>13.399999999999999</ele><time>2026-04-27T14:06:17.015Z</time></trkpt><trkpt lat="39.53926425675655" lon="8.454284838294553"><ele>14.0</ele><time>2026-04-27T14:06:18.015Z</time></trkpt><trkpt lat="39.539304882700755" lon="8.454160890204323"><ele>14.0</ele><time>2026-04-27T14:06:19.015Z</time></trkpt><trkpt lat="39.539357633282556" lon="8.454039507919957"><ele>13.999999999999998</ele><time>2026-04-27T14:06:20.015Z</time></trkpt><trkpt lat="39.5394172675569" lon="8.453916513085188"><ele>13.999999999999998</ele><time>2026-04-27T14:06:21.015Z</time></trkpt><trkpt lat="39.539477896483326" lon="8.453806407655435"><ele>14.0</ele><time>2026-04-27T14:06:22.015Z</time></trkpt><trkpt lat="39.53952807203875" lon="8.453712769427444"><ele>14.0</ele><time>2026-04-27T14:06:23.015Z</time></trkpt><trkpt lat="39.539575076840606" lon="8.453626014471576"><ele>12.799999999999999</ele><time>2026-04-27T14:06:24.015Z</time></trkpt><trkpt lat="39.53965597108958" lon="8.453490511346084"><ele>11.599999999999998</ele><time>2026-04-27T14:06:26.015Z</time></trkpt><trkpt lat="39.53970074211846" lon="8.453431594150384"><ele>10.4</ele><time>2026-04-27T14:06:27.015Z</time></trkpt><trkpt lat="39.53978364135089" lon="8.453325442355638"><ele>9.2</ele><time>2026-04-27T14:06:29.015Z</time></trkpt><trkpt lat="39.53984611184501" lon="8.453246861906438"><ele>8.0</ele><time>2026-04-27T14:06:31.015Z</time></trkpt><trkpt lat="39.53993646905358" lon="8.453176109872393"><ele>7.999999999999999</ele><time>2026-04-27T14:06:33.015Z</time></trkpt><trkpt lat="39.54003760791697" lon="8.453067550530326"><ele>8.0</ele><time>2026-04-27T14:06:35.015Z</time></trkpt><trkpt lat="39.54008397514708" lon="8.452997349829332"><ele>8.0</ele><time>2026-04-27T14:06:36.015Z</time></trkpt><trkpt lat="39.540124821634144" lon="8.452934455728919"><ele>8.0</ele><time>2026-04-27T14:06:37.015Z</time></trkpt><trkpt lat="39.54013746773054" lon="8.452835313686295"><ele>7.999999999999999</ele><time>2026-04-27T14:06:38.015Z</time></trkpt><trkpt lat="39.54014254478737" lon="8.452719948642152"><ele>8.0</ele><time>2026-04-27T14:06:40.016Z</time></trkpt><trkpt lat="39.540225721190545" lon="8.452721192860995"><ele>8.0</ele><time>2026-04-27T14:06:41.016Z</time></trkpt><trkpt lat="39.54025288103185" lon="8.452613697539705"><ele>8.0</ele><time>2026-04-27T14:06:43.016Z</time></trkpt><trkpt lat="39.54028269806458" lon="8.452510456810607"><ele>8.0</ele><time>2026-04-27T14:06:44.016Z</time></trkpt><trkpt lat="39.54030800057859" lon="8.45238895102353"><ele>8.0</ele><time>2026-04-27T14:06:45.016Z</time></trkpt><trkpt lat="39.54036067301889" lon="8.452273896448368"><ele>8.0</ele><time>2026-04-27T14:06:46.016Z</time></trkpt><trkpt lat="39.54040050708949" lon="8.452154744214273"><ele>7.499999999999999</ele><time>2026-04-27T14:06:47.016Z</time></trkpt><trkpt lat="39.540452038288606" lon="8.452056767989594"><ele>7.0</ele><time>2026-04-27T14:06:48.016Z</time></trkpt><trkpt lat="39.540458440400776" lon="8.451944608183997"><ele>6.5</ele><time>2026-04-27T14:06:49.016Z</time></trkpt><trkpt lat="39.54050286948419" lon="8.451859358443551"><ele>6.0</ele><time>2026-04-27T14:06:50.016Z</time></trkpt><trkpt lat="39.540561810033886" lon="8.451784754015241"><ele>5.5</ele><time>2026-04-27T14:06:51.016Z</time></trkpt><trkpt lat="39.540619335449136" lon="8.45171306591345"><ele>5.0</ele><time>2026-04-27T14:06:52.016Z</time></trkpt><trkpt lat="39.540668784744895" lon="8.451641304201766"><ele>5.0</ele><time>2026-04-27T14:06:53.016Z</time></trkpt><trkpt lat="39.54070242990826" lon="8.451567065605698"><ele>5.0</ele><time>2026-04-27T14:06:54.016Z</time></trkpt><trkpt lat="39.54073431137795" lon="8.45143300300295"><ele>5.0</ele><time>2026-04-27T14:06:56.016Z</time></trkpt><trkpt lat="39.54075451339375" lon="8.451320589216332"><ele>5.0</ele><time>2026-04-27T14:06:58.016Z</time></trkpt><trkpt lat="39.540773679123184" lon="8.45120350694515"><ele>5.0</ele><time>2026-04-27T14:07:00.016Z</time></trkpt><trkpt lat="39.540802947105576" lon="8.451115175255419"><ele>5.0</ele><time>2026-04-27T14:07:02.016Z</time></trkpt><trkpt lat="39.54085121494044" lon="8.451027154749749"><ele>5.0</ele><time>2026-04-27T14:07:05.016Z</time></trkpt><trkpt lat="39.540927087367955" lon="8.45097546034667"><ele>5.0</ele><time>2026-04-27T14:07:07.016Z</time></trkpt><trkpt lat="39.54102290255626" lon="8.450968613880306"><ele>5.0</ele><time>2026-04-27T14:07:09.016Z</time></trkpt><trkpt lat="39.541084680340006" lon="8.450952851111296"><ele>5.0</ele><time>2026-04-27T14:07:10.016Z</time></trkpt><trkpt lat="39.541195135151" lon="8.450933445514112"><ele>5.0</ele><time>2026-04-27T14:07:12.016Z</time></trkpt><trkpt lat="39.54125765792886" lon="8.450888109530313"><ele>5.0</ele><time>2026-04-27T14:07:16.016Z</time></trkpt><trkpt lat="39.541231261960405" lon="8.450989255494772"><ele>5.0</ele><time>2026-04-27T14:09:17.019Z</time></trkpt><trkpt lat="39.541155715666186" lon="8.450915245024948"><ele>5.0</ele><time>2026-04-27T14:09:22.019Z</time></trkpt><trkpt lat="39.54116542824552" lon="8.450996127277218"><ele>5.0</ele><time>2026-04-27T14:09:27.019Z</time></trkpt><trkpt lat="39.541238653831726" lon="8.450967280815457"><ele>5.0</ele><time>2026-04-27T14:09:30.019Z</time></trkpt><trkpt lat="39.54126163862559" lon="8.450888383195998"><ele>5.0</ele><time>2026-04-27T14:10:48.021Z</time></trkpt><trkpt lat="39.54118236333261" lon="8.45093462936843"><ele>5.0</ele><time>2026-04-27T14:30:43.026Z</time></trkpt><trkpt lat="39.541130108170066" lon="8.450991523948067"><ele>5.0</ele><time>2026-04-27T14:30:45.026Z</time></trkpt><trkpt lat="39.54105559499371" lon="8.451045979158263"><ele>5.0</ele><time>2026-04-27T14:30:47.026Z</time></trkpt><trkpt lat="39.540978081270666" lon="8.451135981755028"><ele>5.0</ele><time>2026-04-27T14:30:49.026Z</time></trkpt><trkpt lat="39.54092545249875" lon="8.451241283393236"><ele>5.0</ele><time>2026-04-27T14:30:51.026Z</time></trkpt><trkpt lat="39.54085717419521" lon="8.45136765918503"><ele>5.0</ele><time>2026-04-27T14:30:53.026Z</time></trkpt><trkpt lat="39.54080936248364" lon="8.451433687689411"><ele>5.0</ele><time>2026-04-27T14:30:54.026Z</time></trkpt><trkpt lat="39.540756348147625" lon="8.451512112313262"><ele>5.0</ele><time>2026-04-27T14:30:55.026Z</time></trkpt><trkpt lat="39.540712060974315" lon="8.451591506657135"><ele>5.0</ele><time>2026-04-27T14:30:56.026Z</time></trkpt><trkpt lat="39.54067263805175" lon="8.451668210511615"><ele>5.0</ele><time>2026-04-27T14:30:57.026Z</time></trkpt><trkpt lat="39.54062463332733" lon="8.451739446136028"><ele>5.0</ele><time>2026-04-27T14:30:58.026Z</time></trkpt><trkpt lat="39.540575333838895" lon="8.451818367757648"><ele>5.0</ele><time>2026-04-27T14:30:59.026Z</time></trkpt><trkpt lat="39.540526255128796" lon="8.451897402543404"><ele>5.0</ele><time>2026-04-27T14:31:00.026Z</time></trkpt><trkpt lat="39.540477906901565" lon="8.451982424701578"><ele>5.0</ele><time>2026-04-27T14:31:01.026Z</time></trkpt><trkpt lat="39.54043555235936" lon="8.452067237290986"><ele>5.0</ele><time>2026-04-27T14:31:02.026Z</time></trkpt><trkpt lat="39.54040537083155" lon="8.45216893152768"><ele>5.0</ele><time>2026-04-27T14:31:03.026Z</time></trkpt><trkpt lat="39.540367456815986" lon="8.452284177980689"><ele>5.0</ele><time>2026-04-27T14:31:04.026Z</time></trkpt><trkpt lat="39.54032980864056" lon="8.452395883352901"><ele>5.0</ele><time>2026-04-27T14:31:05.026Z</time></trkpt><trkpt lat="39.54029224132393" lon="8.45249592081615"><ele>5.6</ele><time>2026-04-27T14:31:06.026Z</time></trkpt><trkpt lat="39.54025320132821" lon="8.452576684450783"><ele>6.2</ele><time>2026-04-27T14:31:07.026Z</time></trkpt><trkpt lat="39.54021123350796" lon="8.452640764283585"><ele>6.800000000000001</ele><time>2026-04-27T14:31:08.026Z</time></trkpt><trkpt lat="39.54012977921951" lon="8.452738930592277"><ele>7.4</ele><time>2026-04-27T14:31:10.026Z</time></trkpt><trkpt lat="39.54008276635097" lon="8.452835883542424"><ele>8.0</ele><time>2026-04-27T14:31:12.026Z</time></trkpt><trkpt lat="39.540033026384265" lon="8.452995932502745"><ele>7.999999999999999</ele><time>2026-04-27T14:31:14.026Z</time></trkpt><trkpt lat="39.53999378027562" lon="8.453081672220213"><ele>8.0</ele><time>2026-04-27T14:31:15.026Z</time></trkpt><trkpt lat="39.53994619811732" lon="8.453145101977352"><ele>8.0</ele><time>2026-04-27T14:31:16.026Z</time></trkpt><trkpt lat="39.539888660066126" lon="8.45319784008449"><ele>8.0</ele><time>2026-04-27T14:31:17.027Z</time></trkpt><trkpt lat="39.53981359847929" lon="8.453243848414365"><ele>7.999999999999999</ele><time>2026-04-27T14:31:19.027Z</time></trkpt><trkpt lat="39.53975119009098" lon="8.453353871077681"><ele>8.0</ele><time>2026-04-27T14:31:22.027Z</time></trkpt><trkpt lat="39.539663612195184" lon="8.453483790768994"><ele>7.999999999999999</ele><time>2026-04-27T14:31:24.027Z</time></trkpt><trkpt lat="39.53961512554713" lon="8.453558965277201"><ele>8.0</ele><time>2026-04-27T14:31:25.027Z</time></trkpt><trkpt lat="39.53957073961948" lon="8.453631595280978"><ele>8.0</ele><time>2026-04-27T14:31:26.027Z</time></trkpt><trkpt lat="39.53952835240479" lon="8.453709843847195"><ele>8.0</ele><time>2026-04-27T14:31:27.027Z</time></trkpt><trkpt lat="39.53947578540882" lon="8.453797564774888"><ele>7.999999999999999</ele><time>2026-04-27T14:31:28.027Z</time></trkpt><trkpt lat="39.53943126750897" lon="8.453890826603423"><ele>8.0</ele><time>2026-04-27T14:31:29.027Z</time></trkpt><trkpt lat="39.53938433329334" lon="8.454001539223128"><ele>9.2</ele><time>2026-04-27T14:31:30.027Z</time></trkpt><trkpt lat="39.53933764544409" lon="8.454104113917133"><ele>10.4</ele><time>2026-04-27T14:31:31.027Z</time></trkpt><trkpt lat="39.53928923223137" lon="8.454213812563342"><ele>11.599999999999998</ele><time>2026-04-27T14:31:32.027Z</time></trkpt><trkpt lat="39.53924529692633" lon="8.454333487310441"><ele>12.799999999999999</ele><time>2026-04-27T14:31:33.027Z</time></trkpt><trkpt lat="39.539199629545514" lon="8.45445534647872"><ele>14.0</ele><time>2026-04-27T14:31:34.027Z</time></trkpt><trkpt lat="39.53915820179189" lon="8.45457119944269"><ele>13.500000000000002</ele><time>2026-04-27T14:31:35.027Z</time></trkpt><trkpt lat="39.539117118367805" lon="8.454670853795998"><ele>13.0</ele><time>2026-04-27T14:31:36.027Z</time></trkpt><trkpt lat="39.53908766974902" lon="8.454759514342507"><ele>12.5</ele><time>2026-04-27T14:31:37.027Z</time></trkpt><trkpt lat="39.53905797211504" lon="8.454849341986945"><ele>12.0</ele><time>2026-04-27T14:31:38.027Z</time></trkpt><trkpt lat="39.53902815439623" lon="8.454924153433819"><ele>11.5</ele><time>2026-04-27T14:31:39.027Z</time></trkpt><trkpt lat="39.53897108175456" lon="8.455040952104724"><ele>11.0</ele><time>2026-04-27T14:31:41.027Z</time></trkpt><trkpt lat="39.53892827295115" lon="8.455173065868014"><ele>11.0</ele><time>2026-04-27T14:31:43.027Z</time></trkpt><trkpt lat="39.53893480848353" lon="8.45533357810505"><ele>11.0</ele><time>2026-04-27T14:31:45.027Z</time></trkpt><trkpt lat="39.53894476932002" lon="8.455424627518282"><ele>11.0</ele><time>2026-04-27T14:31:46.027Z</time></trkpt><trkpt lat="39.53893955060192" lon="8.455528032704983"><ele>11.0</ele><time>2026-04-27T14:31:47.027Z</time></trkpt><trkpt lat="39.538923762706425" lon="8.455615041649027"><ele>11.0</ele><time>2026-04-27T14:31:48.027Z</time></trkpt><trkpt lat="39.5388829981282" lon="8.455698848478539"><ele>11.0</ele><time>2026-04-27T14:31:49.027Z</time></trkpt><trkpt lat="39.53883239655503" lon="8.455770692075346"><ele>11.333333333333332</ele><time>2026-04-27T14:31:50.027Z</time></trkpt><trkpt lat="39.538776697093546" lon="8.455838150893536"><ele>11.666666666666666</ele><time>2026-04-27T14:31:51.027Z</time></trkpt><trkpt lat="39.53871270975311" lon="8.455910137889255"><ele>12.0</ele><time>2026-04-27T14:31:52.027Z</time></trkpt><trkpt lat="39.53864537278668" lon="8.455984355091243"><ele>12.333333333333332</ele><time>2026-04-27T14:31:53.027Z</time></trkpt><trkpt lat="39.53857967523904" lon="8.456061089224146"><ele>12.666666666666666</ele><time>2026-04-27T14:31:54.027Z</time></trkpt><trkpt lat="39.53851773616817" lon="8.456148423373843"><ele>13.0</ele><time>2026-04-27T14:31:55.027Z</time></trkpt><trkpt lat="39.53846524552733" lon="8.456246940843176"><ele>12.499999999999998</ele><time>2026-04-27T14:31:56.027Z</time></trkpt><trkpt lat="39.538408779232036" lon="8.456337640595603"><ele>12.0</ele><time>2026-04-27T14:31:57.026Z</time></trkpt><trkpt lat="39.53836712393647" lon="8.456419522972848"><ele>11.5</ele><time>2026-04-27T14:31:58.026Z</time></trkpt><trkpt lat="39.53832193383686" lon="8.456499986840205"><ele>11.0</ele><time>2026-04-27T14:31:59.026Z</time></trkpt><trkpt lat="39.53828308130431" lon="8.456583995995912"><ele>10.5</ele><time>2026-04-27T14:32:00.026Z</time></trkpt><trkpt lat="39.53821048066732" lon="8.456699525496338"><ele>10.0</ele><time>2026-04-27T14:32:02.026Z</time></trkpt><trkpt lat="39.53817394269433" lon="8.45677031438793"><ele>10.0</ele><time>2026-04-27T14:32:03.026Z</time></trkpt><trkpt lat="39.53809987627764" lon="8.456886806634797"><ele>10.0</ele><time>2026-04-27T14:32:05.026Z</time></trkpt><trkpt lat="39.53804041767765" lon="8.45701284491849"><ele>10.0</ele><time>2026-04-27T14:32:07.026Z</time></trkpt><trkpt lat="39.53800013339796" lon="8.457083977957886"><ele>10.0</ele><time>2026-04-27T14:32:08.026Z</time></trkpt><trkpt lat="39.53795396416813" lon="8.457161787583829"><ele>10.0</ele><time>2026-04-27T14:32:09.025Z</time></trkpt><trkpt lat="39.53790713899302" lon="8.457245230695746"><ele>10.571428571428571</ele><time>2026-04-27T14:32:10.026Z</time></trkpt><trkpt lat="39.53785205408598" lon="8.45731601176379"><ele>11.142857142857142</ele><time>2026-04-27T14:32:11.026Z</time></trkpt><trkpt lat="39.53780552334799" lon="8.457391877428362"><ele>11.714285714285715</ele><time>2026-04-27T14:32:12.026Z</time></trkpt><trkpt lat="39.537765046941594" lon="8.457459230532871"><ele>12.285714285714285</ele><time>2026-04-27T14:32:13.026Z</time></trkpt><trkpt lat="39.53771937652033" lon="8.45752869782775"><ele>12.857142857142858</ele><time>2026-04-27T14:32:14.026Z</time></trkpt><trkpt lat="39.53767731320854" lon="8.457591908686352"><ele>13.428571428571429</ele><time>2026-04-27T14:32:15.026Z</time></trkpt><trkpt lat="39.53764869055491" lon="8.457665909679939"><ele>14.0</ele><time>2026-04-27T14:32:16.026Z</time></trkpt><trkpt lat="39.53762121874249" lon="8.457752455210027"><ele>14.0</ele><time>2026-04-27T14:32:17.026Z</time></trkpt><trkpt lat="39.53758621148098" lon="8.457837075390358"><ele>14.0</ele><time>2026-04-27T14:32:18.026Z</time></trkpt><trkpt lat="39.53755504870549" lon="8.457919624978528"><ele>14.0</ele><time>2026-04-27T14:32:19.026Z</time></trkpt><trkpt lat="39.5375208826087" lon="8.457996686363483"><ele>14.0</ele><time>2026-04-27T14:32:20.026Z</time></trkpt><trkpt lat="39.53747180396321" lon="8.45806587385464"><ele>14.0</ele><time>2026-04-27T14:32:21.026Z</time></trkpt><trkpt lat="39.53740183304759" lon="8.458105187622472"><ele>14.0</ele><time>2026-04-27T14:32:22.026Z</time></trkpt><trkpt lat="39.537326461090146" lon="8.458125666891336"><ele>14.0</ele><time>2026-04-27T14:32:23.026Z</time></trkpt><trkpt lat="39.5372398942727" lon="8.458142687030696"><ele>14.2</ele><time>2026-04-27T14:32:24.026Z</time></trkpt><trkpt lat="39.53714839224566" lon="8.45816826958552"><ele>14.399999999999999</ele><time>2026-04-27T14:32:25.026Z</time></trkpt><trkpt lat="39.53705498129755" lon="8.458189665325298"><ele>14.6</ele><time>2026-04-27T14:32:26.026Z</time></trkpt><trkpt lat="39.53694669659688" lon="8.458224521431129"><ele>14.8</ele><time>2026-04-27T14:32:27.026Z</time></trkpt><trkpt lat="39.53685533219821" lon="8.458270988146396"><ele>15.0</ele><time>2026-04-27T14:32:28.026Z</time></trkpt><trkpt lat="39.53677750149169" lon="8.458333258491587"><ele>15.4</ele><time>2026-04-27T14:32:29.026Z</time></trkpt><trkpt lat="39.536721540272616" lon="8.45840578203931"><ele>15.8</ele><time>2026-04-27T14:32:30.026Z</time></trkpt><trkpt lat="39.53667785180382" lon="8.458492905843762"><ele>16.2</ele><time>2026-04-27T14:32:31.026Z</time></trkpt><trkpt lat="39.536629372308134" lon="8.458594996230564"><ele>16.6</ele><time>2026-04-27T14:32:32.026Z</time></trkpt><trkpt lat="39.536573758248856" lon="8.458707101019737"><ele>17.0</ele><time>2026-04-27T14:32:33.026Z</time></trkpt><trkpt lat="39.53652131601141" lon="8.458825632125627"><ele>17.0</ele><time>2026-04-27T14:32:34.026Z</time></trkpt><trkpt lat="39.53648892660287" lon="8.458934976812214"><ele>17.0</ele><time>2026-04-27T14:32:35.026Z</time></trkpt><trkpt lat="39.53644384789448" lon="8.459058337421807"><ele>17.0</ele><time>2026-04-27T14:32:36.026Z</time></trkpt><trkpt lat="39.53639369472284" lon="8.459174873882356"><ele>17.0</ele><time>2026-04-27T14:32:37.026Z</time></trkpt><trkpt lat="39.53634734180235" lon="8.459282352677457"><ele>17.0</ele><time>2026-04-27T14:32:38.026Z</time></trkpt><trkpt lat="39.536308255441526" lon="8.45938965718023"><ele>17.0</ele><time>2026-04-27T14:32:39.026Z</time></trkpt><trkpt lat="39.53627828645425" lon="8.459506952610935"><ele>17.0</ele><time>2026-04-27T14:32:40.026Z</time></trkpt><trkpt lat="39.53622919358479" lon="8.45961368050365"><ele>17.0</ele><time>2026-04-27T14:32:41.026Z</time></trkpt><trkpt lat="39.536227942123304" lon="8.459729699449573"><ele>17.0</ele><time>2026-04-27T14:32:42.026Z</time></trkpt><trkpt lat="39.53622588850571" lon="8.45984730209847"><ele>17.0</ele><time>2026-04-27T14:32:43.026Z</time></trkpt><trkpt lat="39.536223903394095" lon="8.459975278576065"><ele>17.8</ele><time>2026-04-27T14:32:44.026Z</time></trkpt><trkpt lat="39.53621085401465" lon="8.460106754615078"><ele>18.6</ele><time>2026-04-27T14:32:45.026Z</time></trkpt><trkpt lat="39.53619108363238" lon="8.4602430490974"><ele>19.400000000000002</ele><time>2026-04-27T14:32:46.027Z</time></trkpt><trkpt lat="39.53616008154459" lon="8.46038246788294"><ele>20.2</ele><time>2026-04-27T14:32:47.027Z</time></trkpt><trkpt lat="39.53613091730876" lon="8.460520662527326"><ele>21.0</ele><time>2026-04-27T14:32:48.027Z</time></trkpt><trkpt lat="39.53610464454727" lon="8.460665195666412"><ele>21.0</ele><time>2026-04-27T14:32:49.027Z</time></trkpt><trkpt lat="39.536073217278265" lon="8.4608123299107"><ele>21.0</ele><time>2026-04-27T14:32:50.027Z</time></trkpt><trkpt lat="39.536031094302" lon="8.460956586317678"><ele>21.0</ele><time>2026-04-27T14:32:51.027Z</time></trkpt><trkpt lat="39.53597939286689" lon="8.461094604347082"><ele>21.0</ele><time>2026-04-27T14:32:52.027Z</time></trkpt><trkpt lat="39.535920381029285" lon="8.461235382242165"><ele>20.5</ele><time>2026-04-27T14:32:53.027Z</time></trkpt><trkpt lat="39.535854485418206" lon="8.46137828877963"><ele>20.0</ele><time>2026-04-27T14:32:54.027Z</time></trkpt><trkpt lat="39.53578387704922" lon="8.461521082675302"><ele>19.5</ele><time>2026-04-27T14:32:55.027Z</time></trkpt><trkpt lat="39.53571004936231" lon="8.461664266766963"><ele>19.0</ele><time>2026-04-27T14:32:56.027Z</time></trkpt><trkpt lat="39.535638286028174" lon="8.461803989079224"><ele>19.0</ele><time>2026-04-27T14:32:57.027Z</time></trkpt><trkpt lat="39.53556969140535" lon="8.461929952357295"><ele>19.0</ele><time>2026-04-27T14:32:58.027Z</time></trkpt><trkpt lat="39.53549884359909" lon="8.462053164902635"><ele>19.0</ele><time>2026-04-27T14:32:59.027Z</time></trkpt><trkpt lat="39.535428272226824" lon="8.46218759687234"><ele>19.0</ele><time>2026-04-27T14:33:00.027Z</time></trkpt><trkpt lat="39.53535612455993" lon="8.462323918608169"><ele>21.0</ele><time>2026-04-27T14:33:01.027Z</time></trkpt><trkpt lat="39.53527851627943" lon="8.46246064786485"><ele>23.0</ele><time>2026-04-27T14:33:02.027Z</time></trkpt><trkpt lat="39.535191181745375" lon="8.462591896129322"><ele>25.0</ele><time>2026-04-27T14:33:03.027Z</time></trkpt><trkpt lat="39.535104725725276" lon="8.462735049594393"><ele>27.0</ele><time>2026-04-27T14:33:04.027Z</time></trkpt><trkpt lat="39.53501704611071" lon="8.462872945142186"><ele>25.5</ele><time>2026-04-27T14:33:05.027Z</time></trkpt><trkpt lat="39.53492956788078" lon="8.463011920066917"><ele>24.0</ele><time>2026-04-27T14:33:06.027Z</time></trkpt><trkpt lat="39.53484310608945" lon="8.463141390136038"><ele>22.5</ele><time>2026-04-27T14:33:07.027Z</time></trkpt><trkpt lat="39.5347560260049" lon="8.463259844440136"><ele>21.0</ele><time>2026-04-27T14:33:08.027Z</time></trkpt><trkpt lat="39.53466889430188" lon="8.46337323709233"><ele>21.0</ele><time>2026-04-27T14:33:09.027Z</time></trkpt><trkpt lat="39.53457362354961" lon="8.463482831385393"><ele>21.0</ele><time>2026-04-27T14:33:10.027Z</time></trkpt><trkpt lat="39.53448014482489" lon="8.463577281002546"><ele>21.0</ele><time>2026-04-27T14:33:11.027Z</time></trkpt><trkpt lat="39.53437106765905" lon="8.463629134223499"><ele>21.0</ele><time>2026-04-27T14:33:12.027Z</time></trkpt><trkpt lat="39.53426228767404" lon="8.463691960410769"><ele>21.25</ele><time>2026-04-27T14:33:13.027Z</time></trkpt><trkpt lat="39.534155683097474" lon="8.46377480523295"><ele>21.5</ele><time>2026-04-27T14:33:14.027Z</time></trkpt><trkpt lat="39.534036483475816" lon="8.463864342125996"><ele>21.75</ele><time>2026-04-27T14:33:15.027Z</time></trkpt><trkpt lat="39.53392281955334" lon="8.463959671925135"><ele>22.0</ele><time>2026-04-27T14:33:16.027Z</time></trkpt><trkpt lat="39.533815536656135" lon="8.464052283015612"><ele>24.0</ele><time>2026-04-27T14:33:17.027Z</time></trkpt><trkpt lat="39.53371452584564" lon="8.464152085537949"><ele>26.0</ele><time>2026-04-27T14:33:18.027Z</time></trkpt><trkpt lat="39.53361798564088" lon="8.46425235213769"><ele>28.0</ele><time>2026-04-27T14:33:19.027Z</time></trkpt><trkpt lat="39.53351654712388" lon="8.464351601680544"><ele>30.0</ele><time>2026-04-27T14:33:20.027Z</time></trkpt><trkpt lat="39.53341708400046" lon="8.46444796770427"><ele>30.0</ele><time>2026-04-27T14:33:21.027Z</time></trkpt><trkpt lat="39.53330288972732" lon="8.464512473646815"><ele>30.0</ele><time>2026-04-27T14:33:22.027Z</time></trkpt><trkpt lat="39.533206551642024" lon="8.464596619712571"><ele>30.0</ele><time>2026-04-27T14:33:23.027Z</time></trkpt><trkpt lat="39.53310165755809" lon="8.464660821482854"><ele>30.0</ele><time>2026-04-27T14:33:24.027Z</time></trkpt><trkpt lat="39.53300892705555" lon="8.46472309361951"><ele>29.166666666666668</ele><time>2026-04-27T14:33:25.027Z</time></trkpt><trkpt lat="39.53291910914804" lon="8.46474822326783"><ele>28.333333333333336</ele><time>2026-04-27T14:33:26.027Z</time></trkpt><trkpt lat="39.53286505001566" lon="8.4648039023332"><ele>27.5</ele><time>2026-04-27T14:33:27.027Z</time></trkpt><trkpt lat="39.53289076480647" lon="8.464885470343734"><ele>26.666666666666668</ele><time>2026-04-27T14:33:34.028Z</time></trkpt><trkpt lat="39.532878024887545" lon="8.464767952498864"><ele>25.833333333333336</ele><time>2026-04-27T14:33:42.028Z</time></trkpt><trkpt lat="39.532813202341586" lon="8.464799082017915"><ele>25.0</ele><time>2026-04-27T14:34:02.028Z</time></trkpt><trkpt lat="39.53291396937838" lon="8.464877006450026"><ele>25.0</ele><time>2026-04-27T14:34:10.027Z</time></trkpt><trkpt lat="39.532813202341586" lon="8.464799082017915"><ele>25.0</ele><time>2026-04-27T14:34:02.028Z</time></trkpt><trkpt lat="39.53291396937838" lon="8.464877006450026"><ele>25.0</ele><time>2026-04-27T14:34:10.027Z</time></trkpt><trkpt lat="39.53288976214172" lon="8.464762316131925"><ele>25.0</ele><time>2026-04-27T14:34:20.027Z</time></trkpt><trkpt lat="39.53293596752905" lon="8.464925249598577"><ele>25.0</ele><time>2026-04-27T14:34:21.027Z</time></trkpt><trkpt lat="39.532890059913726" lon="8.464762173102445"><ele>25.0</ele><time>2026-04-27T14:34:25.027Z</time></trkpt><trkpt lat="39.53292441309983" lon="8.464878434249028"><ele>25.0</ele><time>2026-04-27T14:34:59.028Z</time></trkpt><trkpt lat="39.532855677535714" lon="8.464795041118586"><ele>25.0</ele><time>2026-04-27T14:35:03.028Z</time></trkpt><trkpt lat="39.53292109626768" lon="8.46485239084715"><ele>25.0</ele><time>2026-04-27T14:35:08.028Z</time></trkpt><trkpt lat="39.53289664433646" lon="8.464929575732663"><ele>25.0</ele><time>2026-04-27T14:35:14.028Z</time></trkpt><trkpt lat="39.53268001857516" lon="8.464933230437756"><ele>25.0</ele><time>2026-04-27T14:35:53.029Z</time></trkpt><trkpt lat="39.53260264550449" lon="8.46491493465297"><ele>25.0</ele><time>2026-04-27T14:35:54.029Z</time></trkpt><trkpt lat="39.53251518985746" lon="8.464914012759834"><ele>25.0</ele><time>2026-04-27T14:35:55.029Z</time></trkpt><trkpt lat="39.53240876874111" lon="8.464963809789234"><ele>25.0</ele><time>2026-04-27T14:35:56.029Z</time></trkpt><trkpt lat="39.532312775253665" lon="8.465002224595208"><ele>25.0</ele><time>2026-04-27T14:35:57.029Z</time></trkpt><trkpt lat="39.532208690364946" lon="8.465043217179193"><ele>25.0</ele><time>2026-04-27T14:35:58.029Z</time></trkpt><trkpt lat="39.53209720693868" lon="8.4650871235476"><ele>25.0</ele><time>2026-04-27T14:35:59.029Z</time></trkpt><trkpt lat="39.53198268661657" lon="8.465152219036751"><ele>26.75</ele><time>2026-04-27T14:36:00.029Z</time></trkpt><trkpt lat="39.53185678043456" lon="8.46517835894364"><ele>28.5</ele><time>2026-04-27T14:36:01.029Z</time></trkpt><trkpt lat="39.531730355428195" lon="8.465212586182139"><ele>30.25</ele><time>2026-04-27T14:36:02.029Z</time></trkpt><trkpt lat="39.53160634142711" lon="8.465246565632409"><ele>32.0</ele><time>2026-04-27T14:36:03.029Z</time></trkpt><trkpt lat="39.53148060897011" lon="8.465275910364554"><ele>32.0</ele><time>2026-04-27T14:36:04.029Z</time></trkpt><trkpt lat="39.5313473102302" lon="8.46530602747462"><ele>32.0</ele><time>2026-04-27T14:36:05.029Z</time></trkpt><trkpt lat="39.53121848201464" lon="8.46533463799526"><ele>32.0</ele><time>2026-04-27T14:36:06.029Z</time></trkpt><trkpt lat="39.531090895589166" lon="8.46537904174047"><ele>32.0</ele><time>2026-04-27T14:36:07.029Z</time></trkpt><trkpt lat="39.53097884889811" lon="8.46542434874621"><ele>31.200000000000003</ele><time>2026-04-27T14:36:08.029Z</time></trkpt><trkpt lat="39.53087562335119" lon="8.46547793697386"><ele>30.400000000000002</ele><time>2026-04-27T14:36:09.028Z</time></trkpt><trkpt lat="39.530779637704754" lon="8.465516197394043"><ele>29.599999999999998</ele><time>2026-04-27T14:36:10.028Z</time></trkpt><trkpt lat="39.53069608343271" lon="8.465585747606871"><ele>28.799999999999997</ele><time>2026-04-27T14:36:11.028Z</time></trkpt><trkpt lat="39.53062553377583" lon="8.465658670685622"><ele>28.0</ele><time>2026-04-27T14:36:12.028Z</time></trkpt><trkpt lat="39.53056328454662" lon="8.465761430575219"><ele>28.0</ele><time>2026-04-27T14:36:13.027Z</time></trkpt><trkpt lat="39.530500096752135" lon="8.465887446097659"><ele>28.0</ele><time>2026-04-27T14:36:14.027Z</time></trkpt><trkpt lat="39.53045236143261" lon="8.465998104655123"><ele>28.0</ele><time>2026-04-27T14:36:15.028Z</time></trkpt><trkpt lat="39.53039957696353" lon="8.46614023186697"><ele>28.0</ele><time>2026-04-27T14:36:16.028Z</time></trkpt><trkpt lat="39.53034195413712" lon="8.466310958451981"><ele>29.0</ele><time>2026-04-27T14:36:17.028Z</time></trkpt><trkpt lat="39.53028915260032" lon="8.466456834982766"><ele>30.0</ele><time>2026-04-27T14:36:18.028Z</time></trkpt><trkpt lat="39.53024001366058" lon="8.466591333890177"><ele>31.0</ele><time>2026-04-27T14:36:19.028Z</time></trkpt><trkpt lat="39.53019121655781" lon="8.466724896427564"><ele>32.0</ele><time>2026-04-27T14:36:20.028Z</time></trkpt><trkpt lat="39.53012430420375" lon="8.466846747402563"><ele>32.0</ele><time>2026-04-27T14:36:21.028Z</time></trkpt><trkpt lat="39.53005373141016" lon="8.466960469511427"><ele>32.0</ele><time>2026-04-27T14:36:22.028Z</time></trkpt><trkpt lat="39.529974985323236" lon="8.467077322992685"><ele>32.0</ele><time>2026-04-27T14:36:23.028Z</time></trkpt><trkpt lat="39.52989394213794" lon="8.467185553954549"><ele>32.0</ele><time>2026-04-27T14:36:24.028Z</time></trkpt><trkpt lat="39.52980794999591" lon="8.46727862847898"><ele>31.8</ele><time>2026-04-27T14:36:25.028Z</time></trkpt><trkpt lat="39.52972958807588" lon="8.46736686820201"><ele>31.6</ele><time>2026-04-27T14:36:26.028Z</time></trkpt><trkpt lat="39.52964228859167" lon="8.467399246772395"><ele>31.400000000000002</ele><time>2026-04-27T14:36:27.028Z</time></trkpt><trkpt lat="39.52955988705277" lon="8.467444127724878"><ele>31.200000000000003</ele><time>2026-04-27T14:36:28.028Z</time></trkpt><trkpt lat="39.52946017024606" lon="8.467448958602818"><ele>31.0</ele><time>2026-04-27T14:36:29.028Z</time></trkpt><trkpt lat="39.529345740108475" lon="8.467481537908338"><ele>31.0</ele><time>2026-04-27T14:36:30.028Z</time></trkpt><trkpt lat="39.52923556800029" lon="8.467541927578077"><ele>31.0</ele><time>2026-04-27T14:36:31.028Z</time></trkpt><trkpt lat="39.529159523047056" lon="8.46765033559611"><ele>31.0</ele><time>2026-04-27T14:36:32.028Z</time></trkpt><trkpt lat="39.52907829296217" lon="8.467741692630913"><ele>31.0</ele><time>2026-04-27T14:36:33.028Z</time></trkpt><trkpt lat="39.52897904763913" lon="8.4678216711464"><ele>31.25</ele><time>2026-04-27T14:36:34.028Z</time></trkpt><trkpt lat="39.52889558999383" lon="8.467947740494798"><ele>31.5</ele><time>2026-04-27T14:36:35.028Z</time></trkpt><trkpt lat="39.52882037988443" lon="8.468079402430421"><ele>31.75</ele><time>2026-04-27T14:36:36.028Z</time></trkpt><trkpt lat="39.52875492180646" lon="8.468227252475822"><ele>32.0</ele><time>2026-04-27T14:36:37.028Z</time></trkpt><trkpt lat="39.528691740713974" lon="8.468380028054458"><ele>32.666666666666664</ele><time>2026-04-27T14:36:38.028Z</time></trkpt><trkpt lat="39.52862835832981" lon="8.468543607583621"><ele>33.333333333333336</ele><time>2026-04-27T14:36:39.028Z</time></trkpt><trkpt lat="39.528559530623056" lon="8.468725411403394"><ele>34.0</ele><time>2026-04-27T14:36:40.028Z</time></trkpt><trkpt lat="39.528486315788065" lon="8.468908790783976"><ele>34.0</ele><time>2026-04-27T14:36:41.028Z</time></trkpt><trkpt lat="39.528413462559655" lon="8.469083032301906"><ele>34.0</ele><time>2026-04-27T14:36:42.028Z</time></trkpt><trkpt lat="39.52833278443384" lon="8.469244810035658"><ele>34.0</ele><time>2026-04-27T14:36:43.028Z</time></trkpt><trkpt lat="39.52824440231768" lon="8.469392055578753"><ele>34.0</ele><time>2026-04-27T14:36:44.028Z</time></trkpt><trkpt lat="39.52815260767145" lon="8.469527215797385"><ele>33.6</ele><time>2026-04-27T14:36:45.028Z</time></trkpt><trkpt lat="39.52805536934111" lon="8.469638825841184"><ele>33.2</ele><time>2026-04-27T14:36:46.028Z</time></trkpt><trkpt lat="39.527975312940875" lon="8.469742850339411"><ele>32.800000000000004</ele><time>2026-04-27T14:36:47.028Z</time></trkpt><trkpt lat="39.52789989854019" lon="8.46983656974328"><ele>32.4</ele><time>2026-04-27T14:36:48.028Z</time></trkpt><trkpt lat="39.52782236881706" lon="8.469906288293451"><ele>32.0</ele><time>2026-04-27T14:36:49.028Z</time></trkpt><trkpt lat="39.52776351350097" lon="8.469991122844906"><ele>32.6</ele><time>2026-04-27T14:36:50.028Z</time></trkpt><trkpt lat="39.5277124356988" lon="8.470069143429589"><ele>33.2</ele><time>2026-04-27T14:36:51.029Z</time></trkpt><trkpt lat="39.52767450667988" lon="8.470134447808821"><ele>33.8</ele><time>2026-04-27T14:36:52.029Z</time></trkpt><trkpt lat="39.52760060899533" lon="8.470247891271036"><ele>34.4</ele><time>2026-04-27T14:36:54.029Z</time></trkpt><trkpt lat="39.527517692557325" lon="8.470335183033589"><ele>35.0</ele><time>2026-04-27T14:36:56.029Z</time></trkpt><trkpt lat="39.527477683768865" lon="8.470462548500318"><ele>35.0</ele><time>2026-04-27T14:36:58.029Z</time></trkpt><trkpt lat="39.52745198979966" lon="8.470629368934505"><ele>35.0</ele><time>2026-04-27T14:37:00.029Z</time></trkpt><trkpt lat="39.52745475487845" lon="8.470721078884354"><ele>35.0</ele><time>2026-04-27T14:37:01.029Z</time></trkpt><trkpt lat="39.52745948066053" lon="8.47080629711754"><ele>35.0</ele><time>2026-04-27T14:37:02.029Z</time></trkpt><trkpt lat="39.52745187801672" lon="8.470894979772845"><ele>35.0</ele><time>2026-04-27T14:37:03.029Z</time></trkpt><trkpt lat="39.52746864123006" lon="8.4709777848175"><ele>35.0</ele><time>2026-04-27T14:37:04.029Z</time></trkpt><trkpt lat="39.5274851639194" lon="8.471060202578306"><ele>35.0</ele><time>2026-04-27T14:37:05.029Z</time></trkpt><trkpt lat="39.52749710898571" lon="8.471218683679718"><ele>35.0</ele><time>2026-04-27T14:37:07.029Z</time></trkpt><trkpt lat="39.527501301707694" lon="8.471309442447811"><ele>35.0</ele><time>2026-04-27T14:37:08.029Z</time></trkpt><trkpt lat="39.52750230208684" lon="8.4714040807746"><ele>35.0</ele><time>2026-04-27T14:37:09.029Z</time></trkpt><trkpt lat="39.52749415712797" lon="8.471492691743016"><ele>35.0</ele><time>2026-04-27T14:37:10.029Z</time></trkpt><trkpt lat="39.52747684864016" lon="8.471576681581173"><ele>35.0</ele><time>2026-04-27T14:37:11.029Z</time></trkpt><trkpt lat="39.52744659435686" lon="8.471653473240806"><ele>35.0</ele><time>2026-04-27T14:37:12.029Z</time></trkpt><trkpt lat="39.52740035628041" lon="8.471724603590483"><ele>35.0</ele><time>2026-04-27T14:37:13.029Z</time></trkpt><trkpt lat="39.52733767408011" lon="8.471792956094728"><ele>35.0</ele><time>2026-04-27T14:37:14.029Z</time></trkpt><trkpt lat="39.52726139240326" lon="8.471855099369547"><ele>35.0</ele><time>2026-04-27T14:37:15.029Z</time></trkpt><trkpt lat="39.52716947377619" lon="8.47189537940335"><ele>35.0</ele><time>2026-04-27T14:37:16.029Z</time></trkpt><trkpt lat="39.52707799278194" lon="8.47194505612433"><ele>35.0</ele><time>2026-04-27T14:37:17.029Z</time></trkpt><trkpt lat="39.52697982484672" lon="8.471993294892728"><ele>38.0</ele><time>2026-04-27T14:37:18.029Z</time></trkpt><trkpt lat="39.526872071185224" lon="8.472021595233798"><ele>41.0</ele><time>2026-04-27T14:37:19.029Z</time></trkpt><trkpt lat="39.526753816952386" lon="8.472056950205628"><ele>44.0</ele><time>2026-04-27T14:37:20.029Z</time></trkpt><trkpt lat="39.52663240091028" lon="8.472070768733607"><ele>47.0</ele><time>2026-04-27T14:37:21.029Z</time></trkpt><trkpt lat="39.526519806640096" lon="8.472100529342907"><ele>47.2</ele><time>2026-04-27T14:37:22.029Z</time></trkpt><trkpt lat="39.52641695798961" lon="8.472146345339924"><ele>47.400000000000006</ele><time>2026-04-27T14:37:23.029Z</time></trkpt><trkpt lat="39.526321065200825" lon="8.472206976861544"><ele>47.599999999999994</ele><time>2026-04-27T14:37:24.029Z</time></trkpt><trkpt lat="39.52622531606331" lon="8.47227486360452"><ele>47.8</ele><time>2026-04-27T14:37:25.029Z</time></trkpt><trkpt lat="39.52613880094347" lon="8.472363374440572"><ele>48.0</ele><time>2026-04-27T14:37:26.029Z</time></trkpt><trkpt lat="39.526045702979005" lon="8.472472486465985"><ele>48.0</ele><time>2026-04-27T14:37:27.029Z</time></trkpt><trkpt lat="39.52595384087233" lon="8.472580392156079"><ele>48.0</ele><time>2026-04-27T14:37:28.029Z</time></trkpt><trkpt lat="39.52586202882169" lon="8.47268154506714"><ele>48.0</ele><time>2026-04-27T14:37:29.029Z</time></trkpt><trkpt lat="39.52576030837272" lon="8.472773740654675"><ele>48.0</ele><time>2026-04-27T14:37:30.029Z</time></trkpt><trkpt lat="39.52562796655115" lon="8.472837005591687"><ele>48.25</ele><time>2026-04-27T14:37:31.029Z</time></trkpt><trkpt lat="39.5255360341232" lon="8.472955114731283"><ele>48.5</ele><time>2026-04-27T14:37:32.029Z</time></trkpt><trkpt lat="39.52542229371429" lon="8.47305522060299"><ele>48.75</ele><time>2026-04-27T14:37:33.029Z</time></trkpt><trkpt lat="39.525319252958084" lon="8.473148297559257"><ele>49.0</ele><time>2026-04-27T14:37:34.029Z</time></trkpt><trkpt lat="39.525215278373906" lon="8.473225947374168"><ele>49.0</ele><time>2026-04-27T14:37:35.029Z</time></trkpt><trkpt lat="39.52512008109733" lon="8.473324701438596"><ele>49.0</ele><time>2026-04-27T14:37:36.029Z</time></trkpt><trkpt lat="39.525043250272226" lon="8.473436263583192"><ele>49.0</ele><time>2026-04-27T14:37:37.03Z</time></trkpt><trkpt lat="39.525003260007864" lon="8.473560588786498"><ele>49.0</ele><time>2026-04-27T14:37:38.03Z</time></trkpt><trkpt lat="39.524970330804464" lon="8.473672900640599"><ele>49.0</ele><time>2026-04-27T14:37:39.03Z</time></trkpt><trkpt lat="39.52493360918558" lon="8.473813988308668"><ele>47.25</ele><time>2026-04-27T14:37:40.03Z</time></trkpt><trkpt lat="39.52490286045072" lon="8.473957568749922"><ele>45.5</ele><time>2026-04-27T14:37:41.03Z</time></trkpt><trkpt lat="39.524873315306955" lon="8.474117405755583"><ele>43.75</ele><time>2026-04-27T14:37:42.03Z</time></trkpt><trkpt lat="39.52484557844117" lon="8.47427065363489"><ele>42.0</ele><time>2026-04-27T14:37:43.03Z</time></trkpt><trkpt lat="39.52481160956359" lon="8.474420531352996"><ele>42.0</ele><time>2026-04-27T14:37:44.03Z</time></trkpt><trkpt lat="39.52477142901353" lon="8.474545013877329"><ele>42.0</ele><time>2026-04-27T14:37:45.03Z</time></trkpt><trkpt lat="39.524719873012295" lon="8.474676234117894"><ele>42.0</ele><time>2026-04-27T14:37:46.03Z</time></trkpt><trkpt lat="39.52465691916479" lon="8.474801353286727"><ele>42.0</ele><time>2026-04-27T14:37:47.03Z</time></trkpt><trkpt lat="39.52457229238808" lon="8.474909744575273"><ele>43.2</ele><time>2026-04-27T14:37:48.03Z</time></trkpt><trkpt lat="39.524506043779" lon="8.47497217805682"><ele>44.400000000000006</ele><time>2026-04-27T14:37:49.03Z</time></trkpt><trkpt lat="39.52440370428693" lon="8.475009077793953"><ele>45.599999999999994</ele><time>2026-04-27T14:37:50.03Z</time></trkpt><trkpt lat="39.52429377126137" lon="8.475059250471078"><ele>46.8</ele><time>2026-04-27T14:37:51.03Z</time></trkpt><trkpt lat="39.52417382396448" lon="8.47513431975617"><ele>48.0</ele><time>2026-04-27T14:37:52.03Z</time></trkpt><trkpt lat="39.52404494924433" lon="8.475181629879298"><ele>48.0</ele><time>2026-04-27T14:37:53.03Z</time></trkpt><trkpt lat="39.52391439055368" lon="8.475219986055716"><ele>48.0</ele><time>2026-04-27T14:37:54.03Z</time></trkpt><trkpt lat="39.52378483082178" lon="8.475260930116773"><ele>48.0</ele><time>2026-04-27T14:37:55.03Z</time></trkpt><trkpt lat="39.523659027947076" lon="8.47527530542058"><ele>48.0</ele><time>2026-04-27T14:37:56.03Z</time></trkpt><trkpt lat="39.52353993229644" lon="8.475296407488498"><ele>50.5</ele><time>2026-04-27T14:37:57.03Z</time></trkpt><trkpt lat="39.523424003093425" lon="8.475307353775447"><ele>53.0</ele><time>2026-04-27T14:37:58.03Z</time></trkpt><trkpt lat="39.52331151474517" lon="8.475304310071122"><ele>55.5</ele><time>2026-04-27T14:37:59.03Z</time></trkpt><trkpt lat="39.52318909090737" lon="8.47529307835196"><ele>58.0</ele><time>2026-04-27T14:38:00.03Z</time></trkpt><trkpt lat="39.52303776069153" lon="8.475289882762231"><ele>57.33333333333333</ele><time>2026-04-27T14:38:01.03Z</time></trkpt><trkpt lat="39.52287266715545" lon="8.475305662930806"><ele>56.66666666666667</ele><time>2026-04-27T14:38:02.03Z</time></trkpt><trkpt lat="39.52270300512689" lon="8.475352152224554"><ele>56.0</ele><time>2026-04-27T14:38:03.03Z</time></trkpt><trkpt lat="39.52253037671173" lon="8.475388779256338"><ele>54.333333333333336</ele><time>2026-04-27T14:38:04.03Z</time></trkpt><trkpt lat="39.52235586079783" lon="8.475448019475783"><ele>52.66666666666667</ele><time>2026-04-27T14:38:05.03Z</time></trkpt><trkpt lat="39.52219394877622" lon="8.475524271771615"><ele>51.0</ele><time>2026-04-27T14:38:06.03Z</time></trkpt><trkpt lat="39.52206893841326" lon="8.475592232439277"><ele>52.4</ele><time>2026-04-27T14:38:07.03Z</time></trkpt><trkpt lat="39.52195982876145" lon="8.47567924971179"><ele>53.8</ele><time>2026-04-27T14:38:08.03Z</time></trkpt><trkpt lat="39.52190966310976" lon="8.475746960971486"><ele>55.199999999999996</ele><time>2026-04-27T14:38:09.03Z</time></trkpt><trkpt lat="39.52183042109793" lon="8.475876493185325"><ele>56.599999999999994</ele><time>2026-04-27T14:38:11.03Z</time></trkpt><trkpt lat="39.52180666821972" lon="8.475965964398245"><ele>58.0</ele><time>2026-04-27T14:38:12.03Z</time></trkpt><trkpt lat="39.521760686372616" lon="8.47605467052639"><ele>58.0</ele><time>2026-04-27T14:38:13.03Z</time></trkpt><trkpt lat="39.52174255375649" lon="8.476188006364403"><ele>58.0</ele><time>2026-04-27T14:38:14.03Z</time></trkpt><trkpt lat="39.52171402587802" lon="8.476331700160777"><ele>58.0</ele><time>2026-04-27T14:38:15.029Z</time></trkpt><trkpt lat="39.52166981055198" lon="8.476458222016571"><ele>58.0</ele><time>2026-04-27T14:38:16.029Z</time></trkpt><trkpt lat="39.52161690188959" lon="8.476558904342543"><ele>58.0</ele><time>2026-04-27T14:38:17.029Z</time></trkpt><trkpt lat="39.52154195959621" lon="8.476655956471697"><ele>57.0</ele><time>2026-04-27T14:38:18.029Z</time></trkpt><trkpt lat="39.521459244671476" lon="8.476739243119006"><ele>56.0</ele><time>2026-04-27T14:38:19.028Z</time></trkpt><trkpt lat="39.52137911263839" lon="8.476819223847897"><ele>55.0</ele><time>2026-04-27T14:38:20.028Z</time></trkpt><trkpt lat="39.52130404459718" lon="8.476913998392623"><ele>54.0</ele><time>2026-04-27T14:38:21.029Z</time></trkpt><trkpt lat="39.52123821952499" lon="8.47703161745195"><ele>53.0</ele><time>2026-04-27T14:38:22.029Z</time></trkpt><trkpt lat="39.52117709325816" lon="8.477148602026217"><ele>56.75</ele><time>2026-04-27T14:38:23.029Z</time></trkpt><trkpt lat="39.52110736921388" lon="8.477242560409884"><ele>60.5</ele><time>2026-04-27T14:38:24.029Z</time></trkpt><trkpt lat="39.52104519407146" lon="8.477362767903804"><ele>64.25</ele><time>2026-04-27T14:38:25.028Z</time></trkpt><trkpt lat="39.520974911000074" lon="8.477518502564898"><ele>68.0</ele><time>2026-04-27T14:38:26.028Z</time></trkpt><trkpt lat="39.52090581833667" lon="8.477686692209268"><ele>68.0</ele><time>2026-04-27T14:38:27.029Z</time></trkpt><trkpt lat="39.52083433783477" lon="8.47785780537545"><ele>68.0</ele><time>2026-04-27T14:38:28.029Z</time></trkpt><trkpt lat="39.52076802231445" lon="8.478013703170758"><ele>68.0</ele><time>2026-04-27T14:38:29.029Z</time></trkpt><trkpt lat="39.52069370008761" lon="8.47816349971523"><ele>68.0</ele><time>2026-04-27T14:38:30.029Z</time></trkpt><trkpt lat="39.52062272718297" lon="8.478304414713062"><ele>67.0</ele><time>2026-04-27T14:38:31.029Z</time></trkpt><trkpt lat="39.52055029528106" lon="8.478469919494444"><ele>66.0</ele><time>2026-04-27T14:38:32.029Z</time></trkpt><trkpt lat="39.52049894093963" lon="8.478649450798088"><ele>65.0</ele><time>2026-04-27T14:38:33.029Z</time></trkpt><trkpt lat="39.520490381787944" lon="8.478836757118646"><ele>64.0</ele><time>2026-04-27T14:38:34.029Z</time></trkpt><trkpt lat="39.52050046505944" lon="8.479064926847457"><ele>64.0</ele><time>2026-04-27T14:38:35.029Z</time></trkpt><trkpt lat="39.52052928399075" lon="8.479266540170114"><ele>64.0</ele><time>2026-04-27T14:38:36.029Z</time></trkpt><trkpt lat="39.52058277688813" lon="8.479444481924482"><ele>64.0</ele><time>2026-04-27T14:38:37.029Z</time></trkpt><trkpt lat="39.52065341084179" lon="8.479593603163186"><ele>64.0</ele><time>2026-04-27T14:38:38.029Z</time></trkpt><trkpt lat="39.520710815080626" lon="8.479713654151306"><ele>65.0</ele><time>2026-04-27T14:38:39.03Z</time></trkpt><trkpt lat="39.520769097134476" lon="8.479843217195997"><ele>66.0</ele><time>2026-04-27T14:38:40.03Z</time></trkpt><trkpt lat="39.520822096872685" lon="8.479989977727476"><ele>67.0</ele><time>2026-04-27T14:38:41.03Z</time></trkpt><trkpt lat="39.52085204105124" lon="8.48011810677856"><ele>68.0</ele><time>2026-04-27T14:38:42.03Z</time></trkpt><trkpt lat="39.520863236679034" lon="8.480235498791284"><ele>69.0</ele><time>2026-04-27T14:38:43.03Z</time></trkpt><trkpt lat="39.520849543661065" lon="8.480353753571658"><ele>69.0</ele><time>2026-04-27T14:38:44.03Z</time></trkpt><trkpt lat="39.52081277711389" lon="8.480465712837518"><ele>69.0</ele><time>2026-04-27T14:38:45.03Z</time></trkpt><trkpt lat="39.520757925694795" lon="8.480574098229562"><ele>69.0</ele><time>2026-04-27T14:38:46.03Z</time></trkpt><trkpt lat="39.520678198333776" lon="8.480673664523579"><ele>69.0</ele><time>2026-04-27T14:38:47.03Z</time></trkpt><trkpt lat="39.52058095249647" lon="8.480777866132147"><ele>69.0</ele><time>2026-04-27T14:38:48.03Z</time></trkpt><trkpt lat="39.52048127174501" lon="8.480879870143964"><ele>71.75</ele><time>2026-04-27T14:38:49.03Z</time></trkpt><trkpt lat="39.520382141950336" lon="8.480973730442091"><ele>74.5</ele><time>2026-04-27T14:38:50.03Z</time></trkpt><trkpt lat="39.52029074027265" lon="8.481037320401619"><ele>77.25</ele><time>2026-04-27T14:38:51.03Z</time></trkpt><trkpt lat="39.52018866118694" lon="8.481053834593494"><ele>80.0</ele><time>2026-04-27T14:38:52.03Z</time></trkpt><trkpt lat="39.52007427694803" lon="8.481109418621266"><ele>80.0</ele><time>2026-04-27T14:38:53.03Z</time></trkpt><trkpt lat="39.51999183239152" lon="8.481212232624472"><ele>80.0</ele><time>2026-04-27T14:38:54.03Z</time></trkpt><trkpt lat="39.519945405584984" lon="8.481323090610893"><ele>80.0</ele><time>2026-04-27T14:38:55.03Z</time></trkpt><trkpt lat="39.51990904660576" lon="8.48144749947182"><ele>80.0</ele><time>2026-04-27T14:38:56.03Z</time></trkpt><trkpt lat="39.5198899746974" lon="8.481561243745269"><ele>80.0</ele><time>2026-04-27T14:38:57.03Z</time></trkpt><trkpt lat="39.51987557317454" lon="8.481671177508375"><ele>78.0</ele><time>2026-04-27T14:38:58.03Z</time></trkpt><trkpt lat="39.51987186464864" lon="8.48180182043149"><ele>76.0</ele><time>2026-04-27T14:38:59.03Z</time></trkpt><trkpt lat="39.519897647468" lon="8.48194111812676"><ele>74.0</ele><time>2026-04-27T14:39:00.03Z</time></trkpt><trkpt lat="39.519950239833065" lon="8.482076696638666"><ele>72.0</ele><time>2026-04-27T14:39:01.03Z</time></trkpt><trkpt lat="39.520021588170096" lon="8.482187767317436"><ele>70.0</ele><time>2026-04-27T14:39:02.03Z</time></trkpt><trkpt lat="39.520053762145665" lon="8.482287930166764"><ele>70.0</ele><time>2026-04-27T14:39:03.03Z</time></trkpt><trkpt lat="39.520055836307975" lon="8.482380153400621"><ele>70.0</ele><time>2026-04-27T14:39:04.03Z</time></trkpt><trkpt lat="39.52003306744878" lon="8.482461604026792"><ele>70.0</ele><time>2026-04-27T14:39:05.03Z</time></trkpt><trkpt lat="39.519983223955535" lon="8.482515542140522"><ele>70.0</ele><time>2026-04-27T14:39:06.03Z</time></trkpt><trkpt lat="39.51991288870579" lon="8.4825380218387"><ele>70.0</ele><time>2026-04-27T14:39:07.03Z</time></trkpt><trkpt lat="39.51981956082694" lon="8.482513236840061"><ele>70.0</ele><time>2026-04-27T14:39:08.03Z</time></trkpt><trkpt lat="39.51971669425985" lon="8.482538248515757"><ele>70.0</ele><time>2026-04-27T14:39:09.03Z</time></trkpt><trkpt lat="39.519611129151805" lon="8.482550695819251"><ele>70.0</ele><time>2026-04-27T14:39:10.03Z</time></trkpt><trkpt lat="39.51950702432135" lon="8.482567918198239"><ele>70.0</ele><time>2026-04-27T14:39:11.03Z</time></trkpt><trkpt lat="39.519409758976224" lon="8.482612918884668"><ele>70.0</ele><time>2026-04-27T14:39:12.03Z</time></trkpt><trkpt lat="39.51931479294243" lon="8.482672395138042"><ele>70.0</ele><time>2026-04-27T14:39:13.03Z</time></trkpt><trkpt lat="39.519221763771775" lon="8.482739025470483"><ele>70.4</ele><time>2026-04-27T14:39:14.03Z</time></trkpt><trkpt lat="39.519141613698636" lon="8.482818454179547"><ele>70.8</ele><time>2026-04-27T14:39:15.03Z</time></trkpt><trkpt lat="39.51907181376961" lon="8.482907845352125"><ele>71.2</ele><time>2026-04-27T14:39:16.03Z</time></trkpt><trkpt lat="39.51900578935859" lon="8.483023920247742"><ele>71.6</ele><time>2026-04-27T14:39:17.03Z</time></trkpt><trkpt lat="39.5189435661123" lon="8.483146136445198"><ele>72.0</ele><time>2026-04-27T14:39:18.03Z</time></trkpt><trkpt lat="39.51892786868689" lon="8.483293487698441"><ele>72.0</ele><time>2026-04-27T14:39:19.03Z</time></trkpt><trkpt lat="39.51891446171226" lon="8.483441214367101"><ele>72.0</ele><time>2026-04-27T14:39:20.03Z</time></trkpt><trkpt lat="39.51888320320106" lon="8.483602978545578"><ele>72.0</ele><time>2026-04-27T14:39:21.03Z</time></trkpt><trkpt lat="39.518878245232294" lon="8.483764215664142"><ele>72.0</ele><time>2026-04-27T14:39:22.03Z</time></trkpt><trkpt lat="39.51885978073804" lon="8.483926168556282"><ele>72.6</ele><time>2026-04-27T14:39:23.03Z</time></trkpt><trkpt lat="39.518843984770136" lon="8.484073405389752"><ele>73.2</ele><time>2026-04-27T14:39:24.03Z</time></trkpt><trkpt lat="39.51883038814662" lon="8.484212100727039"><ele>73.8</ele><time>2026-04-27T14:39:25.031Z</time></trkpt><trkpt lat="39.518864581134956" lon="8.484342405458023"><ele>74.4</ele><time>2026-04-27T14:39:26.031Z</time></trkpt><trkpt lat="39.518898425371184" lon="8.48447753128226"><ele>75.0</ele><time>2026-04-27T14:39:27.031Z</time></trkpt><trkpt lat="39.51893636375568" lon="8.484620815833038"><ele>76.0</ele><time>2026-04-27T14:39:28.031Z</time></trkpt><trkpt lat="39.518976068006495" lon="8.484778609744609"><ele>77.0</ele><time>2026-04-27T14:39:29.031Z</time></trkpt><trkpt lat="39.51899781330973" lon="8.484953037188372"><ele>78.0</ele><time>2026-04-27T14:39:30.031Z</time></trkpt><trkpt lat="39.51902353802041" lon="8.485122275759268"><ele>79.0</ele><time>2026-04-27T14:39:31.031Z</time></trkpt><trkpt lat="39.519045040671" lon="8.485263738024464"><ele>79.0</ele><time>2026-04-27T14:39:32.031Z</time></trkpt><trkpt lat="39.51905368605791" lon="8.485383510706413"><ele>79.0</ele><time>2026-04-27T14:39:33.031Z</time></trkpt><trkpt lat="39.519035896082144" lon="8.485484858671668"><ele>79.0</ele><time>2026-04-27T14:39:34.031Z</time></trkpt><trkpt lat="39.51900718762854" lon="8.485593383236854"><ele>79.0</ele><time>2026-04-27T14:39:35.031Z</time></trkpt><trkpt lat="39.51895377403159" lon="8.485696203805045"><ele>79.0</ele><time>2026-04-27T14:39:36.031Z</time></trkpt><trkpt lat="39.51888737001392" lon="8.485790901005045"><ele>80.0</ele><time>2026-04-27T14:39:37.031Z</time></trkpt><trkpt lat="39.51880471661521" lon="8.485887879716286"><ele>81.0</ele><time>2026-04-27T14:39:38.031Z</time></trkpt><trkpt lat="39.51871706793583" lon="8.48598767102059"><ele>82.0</ele><time>2026-04-27T14:39:39.031Z</time></trkpt><trkpt lat="39.51863199031212" lon="8.486096510397376"><ele>83.0</ele><time>2026-04-27T14:39:40.031Z</time></trkpt><trkpt lat="39.518574430886595" lon="8.486238131736348"><ele>85.75</ele><time>2026-04-27T14:39:41.031Z</time></trkpt><trkpt lat="39.518538920327785" lon="8.486380261255203"><ele>88.5</ele><time>2026-04-27T14:39:42.031Z</time></trkpt><trkpt lat="39.51849264352935" lon="8.486512866092875"><ele>91.25</ele><time>2026-04-27T14:39:43.031Z</time></trkpt><trkpt lat="39.518445592610334" lon="8.486645743638613"><ele>94.0</ele><time>2026-04-27T14:39:44.031Z</time></trkpt><trkpt lat="39.518421315745584" lon="8.48679851765072"><ele>94.0</ele><time>2026-04-27T14:39:45.031Z</time></trkpt><trkpt lat="39.51843184389976" lon="8.486959743710832"><ele>94.0</ele><time>2026-04-27T14:39:46.031Z</time></trkpt><trkpt lat="39.518428001414975" lon="8.487121854169873"><ele>94.0</ele><time>2026-04-27T14:39:47.031Z</time></trkpt><trkpt lat="39.518433143204916" lon="8.487287880957494"><ele>94.0</ele><time>2026-04-27T14:39:48.031Z</time></trkpt><trkpt lat="39.51844737091504" lon="8.487445765127232"><ele>94.2</ele><time>2026-04-27T14:39:49.031Z</time></trkpt><trkpt lat="39.51845151433616" lon="8.487592569849772"><ele>94.4</ele><time>2026-04-27T14:39:50.031Z</time></trkpt><trkpt lat="39.51847116018088" lon="8.487718201582586"><ele>94.6</ele><time>2026-04-27T14:39:51.031Z</time></trkpt><trkpt lat="39.5184799874694" lon="8.487843039100802"><ele>94.8</ele><time>2026-04-27T14:39:52.031Z</time></trkpt><trkpt lat="39.518465474903245" lon="8.487952674298525"><ele>95.0</ele><time>2026-04-27T14:39:53.031Z</time></trkpt><trkpt lat="39.5184380367429" lon="8.488034188628939"><ele>93.5</ele><time>2026-04-27T14:39:54.031Z</time></trkpt><trkpt lat="39.518396992640035" lon="8.488096813154986"><ele>92.0</ele><time>2026-04-27T14:39:55.031Z</time></trkpt><trkpt lat="39.518283847682916" lon="8.488133904331434"><ele>90.5</ele><time>2026-04-27T14:39:57.031Z</time></trkpt><trkpt lat="39.51821079685681" lon="8.48812568441495"><ele>89.0</ele><time>2026-04-27T14:39:58.031Z</time></trkpt><trkpt lat="39.5181235561842" lon="8.488104197700775"><ele>87.5</ele><time>2026-04-27T14:39:59.031Z</time></trkpt><trkpt lat="39.51802512730671" lon="8.488098721262455"><ele>86.0</ele><time>2026-04-27T14:40:00.031Z</time></trkpt><trkpt lat="39.517936469655055" lon="8.488132783352274"><ele>91.19999999999999</ele><time>2026-04-27T14:40:01.031Z</time></trkpt><trkpt lat="39.51785768379233" lon="8.488178161242482"><ele>96.39999999999999</ele><time>2026-04-27T14:40:02.031Z</time></trkpt><trkpt lat="39.517778265130794" lon="8.488250712418912"><ele>101.6</ele><time>2026-04-27T14:40:03.031Z</time></trkpt><trkpt lat="39.51770219857227" lon="8.488345082725335"><ele>106.8</ele><time>2026-04-27T14:40:04.031Z</time></trkpt><trkpt lat="39.517624289093966" lon="8.48845446987565"><ele>112.0</ele><time>2026-04-27T14:40:05.031Z</time></trkpt><trkpt lat="39.51754735061577" lon="8.488566588449373"><ele>112.0</ele><time>2026-04-27T14:40:06.031Z</time></trkpt><trkpt lat="39.51747121470272" lon="8.488670213676825"><ele>111.99999999999999</ele><time>2026-04-27T14:40:07.031Z</time></trkpt><trkpt lat="39.5173950157116" lon="8.488775012873212"><ele>111.99999999999999</ele><time>2026-04-27T14:40:08.031Z</time></trkpt><trkpt lat="39.51732725789563" lon="8.488886674065126"><ele>112.0</ele><time>2026-04-27T14:40:09.031Z</time></trkpt><trkpt lat="39.51726835102529" lon="8.489019053279028"><ele>112.0</ele><time>2026-04-27T14:40:10.031Z</time></trkpt><trkpt lat="39.51722446709691" lon="8.489156709864917"><ele>109.8</ele><time>2026-04-27T14:40:11.031Z</time></trkpt><trkpt lat="39.51718639183523" lon="8.489291827716606"><ele>107.6</ele><time>2026-04-27T14:40:12.031Z</time></trkpt><trkpt lat="39.51714999273779" lon="8.489414411193222"><ele>105.39999999999999</ele><time>2026-04-27T14:40:13.031Z</time></trkpt><trkpt lat="39.517102951430346" lon="8.489517257039243"><ele>103.19999999999999</ele><time>2026-04-27T14:40:14.03Z</time></trkpt><trkpt lat="39.51704454675813" lon="8.489600318810826"><ele>101.0</ele><time>2026-04-27T14:40:15.03Z</time></trkpt><trkpt lat="39.516970045717294" lon="8.489670246156532"><ele>101.0</ele><time>2026-04-27T14:40:16.03Z</time></trkpt><trkpt lat="39.51688674413546" lon="8.489732263128989"><ele>101.0</ele><time>2026-04-27T14:40:17.029Z</time></trkpt><trkpt lat="39.51678290036259" lon="8.489768935658246"><ele>101.0</ele><time>2026-04-27T14:40:18.029Z</time></trkpt><trkpt lat="39.51667812961908" lon="8.489786884351812"><ele>101.0</ele><time>2026-04-27T14:40:19.029Z</time></trkpt><trkpt lat="39.51657632030179" lon="8.489819676549203"><ele>101.0</ele><time>2026-04-27T14:40:20.029Z</time></trkpt><trkpt lat="39.51646449025625" lon="8.48984831869377"><ele>101.0</ele><time>2026-04-27T14:40:21.026Z</time></trkpt><trkpt lat="39.51635706410371" lon="8.489914484486592"><ele>101.0</ele><time>2026-04-27T14:40:22.026Z</time></trkpt><trkpt lat="39.516260829476906" lon="8.490009325963307"><ele>101.0</ele><time>2026-04-27T14:40:23.026Z</time></trkpt><trkpt lat="39.51615401806302" lon="8.490064202120587"><ele>101.0</ele><time>2026-04-27T14:40:24.025Z</time></trkpt><trkpt lat="39.516065318762415" lon="8.490126963227782"><ele>101.8</ele><time>2026-04-27T14:40:25.025Z</time></trkpt><trkpt lat="39.515988260766825" lon="8.490192011135605"><ele>102.6</ele><time>2026-04-27T14:40:26.025Z</time></trkpt><trkpt lat="39.515920078045696" lon="8.490256641759993"><ele>103.4</ele><time>2026-04-27T14:40:27.025Z</time></trkpt><trkpt lat="39.51587254775866" lon="8.490354441474153"><ele>104.2</ele><time>2026-04-27T14:40:28.024Z</time></trkpt><trkpt lat="39.51585030307784" lon="8.490483738875144"><ele>105.0</ele><time>2026-04-27T14:40:29.024Z</time></trkpt><trkpt lat="39.51587646740021" lon="8.490624071049393"><ele>105.0</ele><time>2026-04-27T14:40:30.025Z</time></trkpt><trkpt lat="39.51588559111824" lon="8.49074244352592"><ele>105.0</ele><time>2026-04-27T14:40:31.025Z</time></trkpt><trkpt lat="39.51588494223623" lon="8.490870063201633"><ele>105.0</ele><time>2026-04-27T14:40:32.025Z</time></trkpt><trkpt lat="39.51585770453686" lon="8.490984062993615"><ele>105.0</ele><time>2026-04-27T14:40:33.024Z</time></trkpt><trkpt lat="39.51582131536611" lon="8.491088354981782"><ele>105.0</ele><time>2026-04-27T14:40:34.025Z</time></trkpt><trkpt lat="39.51576983809346" lon="8.491185844216913"><ele>104.8</ele><time>2026-04-27T14:40:35.024Z</time></trkpt><trkpt lat="39.515704186347435" lon="8.491278060605644"><ele>104.6</ele><time>2026-04-27T14:40:36.024Z</time></trkpt><trkpt lat="39.515618233909436" lon="8.491356344506295"><ele>104.4</ele><time>2026-04-27T14:40:37.024Z</time></trkpt><trkpt lat="39.515526276829505" lon="8.491437524032767"><ele>104.2</ele><time>2026-04-27T14:40:38.024Z</time></trkpt><trkpt lat="39.515428911483845" lon="8.491522310457968"><ele>104.0</ele><time>2026-04-27T14:40:39.024Z</time></trkpt><trkpt lat="39.515310499163085" lon="8.491585668263104"><ele>107.25</ele><time>2026-04-27T14:40:40.024Z</time></trkpt><trkpt lat="39.51520475099541" lon="8.49166417914383"><ele>110.5</ele><time>2026-04-27T14:40:41.024Z</time></trkpt><trkpt lat="39.51511193049602" lon="8.491756518536953"><ele>113.75</ele><time>2026-04-27T14:40:42.024Z</time></trkpt><trkpt lat="39.5150264179173" lon="8.491869611632128"><ele>117.0</ele><time>2026-04-27T14:40:43.024Z</time></trkpt><trkpt lat="39.514951206818715" lon="8.492010836147362"><ele>114.0</ele><time>2026-04-27T14:40:44.024Z</time></trkpt><trkpt lat="39.514886947775096" lon="8.492168973074188"><ele>111.0</ele><time>2026-04-27T14:40:45.024Z</time></trkpt><trkpt lat="39.51483584519317" lon="8.492332576472336"><ele>108.0</ele><time>2026-04-27T14:40:46.024Z</time></trkpt><trkpt lat="39.51477791029151" lon="8.492527037536835"><ele>105.0</ele><time>2026-04-27T14:40:47.024Z</time></trkpt><trkpt lat="39.51470788397553" lon="8.492713142693281"><ele>105.0</ele><time>2026-04-27T14:40:48.024Z</time></trkpt><trkpt lat="39.5146292145215" lon="8.492883024240728"><ele>105.0</ele><time>2026-04-27T14:40:49.024Z</time></trkpt><trkpt lat="39.514543140038946" lon="8.493036460705984"><ele>105.0</ele><time>2026-04-27T14:40:50.024Z</time></trkpt><trkpt lat="39.51461396463212" lon="8.492891256023137"><ele>105.0</ele><time>2026-04-27T14:40:51.024Z</time></trkpt><trkpt lat="39.51456887695122" lon="8.492969373540419"><ele>106.66666666666667</ele><time>2026-04-27T14:40:52.024Z</time></trkpt><trkpt lat="39.514530420939565" lon="8.493046503409778"><ele>108.33333333333334</ele><time>2026-04-27T14:40:53.024Z</time></trkpt><trkpt lat="39.51450740008971" lon="8.493132454059914"><ele>110.0</ele><time>2026-04-27T14:40:54.024Z</time></trkpt><trkpt lat="39.514487921442495" lon="8.493218045301838"><ele>111.66666666666667</ele><time>2026-04-27T14:40:55.024Z</time></trkpt><trkpt lat="39.514490399905874" lon="8.493313023135077"><ele>113.33333333333334</ele><time>2026-04-27T14:40:56.024Z</time></trkpt><trkpt lat="39.514504437674546" lon="8.49340571159037"><ele>115.0</ele><time>2026-04-27T14:40:57.024Z</time></trkpt><trkpt lat="39.51453782842377" lon="8.493555800918047"><ele>114.4</ele><time>2026-04-27T14:40:59.024Z</time></trkpt><trkpt lat="39.51457752937205" lon="8.493646836661757"><ele>113.8</ele><time>2026-04-27T14:41:01.024Z</time></trkpt><trkpt lat="39.51456377716248" lon="8.49377689542163"><ele>113.19999999999999</ele><time>2026-04-27T14:41:10.024Z</time></trkpt><trkpt lat="39.5144761641822" lon="8.49382638755223"><ele>112.6</ele><time>2026-04-27T14:41:11.024Z</time></trkpt><trkpt lat="39.514351786770455" lon="8.493850664892419"><ele>112.0</ele><time>2026-04-27T14:41:13.024Z</time></trkpt><trkpt lat="39.51421480823833" lon="8.49379759212063"><ele>112.6</ele><time>2026-04-27T14:41:15.024Z</time></trkpt><trkpt lat="39.514134315265224" lon="8.493736309781738"><ele>113.19999999999999</ele><time>2026-04-27T14:41:17.024Z</time></trkpt><trkpt lat="39.514059080958056" lon="8.493676226978438"><ele>113.8</ele><time>2026-04-27T14:41:19.024Z</time></trkpt><trkpt lat="39.51398819313859" lon="8.493629723376664"><ele>114.4</ele><time>2026-04-27T14:41:20.024Z</time></trkpt><trkpt lat="39.51388070231364" lon="8.49360598573322"><ele>115.0</ele><time>2026-04-27T14:41:22.024Z</time></trkpt><trkpt lat="39.51378629708259" lon="8.493694255568965"><ele>114.4</ele><time>2026-04-27T14:41:24.024Z</time></trkpt><trkpt lat="39.51373901179235" lon="8.493832055695796"><ele>113.8</ele><time>2026-04-27T14:41:26.024Z</time></trkpt><trkpt lat="39.513697533623585" lon="8.493938196119633"><ele>113.19999999999999</ele><time>2026-04-27T14:41:28.024Z</time></trkpt><trkpt lat="39.513617565279866" lon="8.493994353448143"><ele>112.6</ele><time>2026-04-27T14:41:30.024Z</time></trkpt><trkpt lat="39.513518472630615" lon="8.494053949223936"><ele>112.0</ele><time>2026-04-27T14:41:32.024Z</time></trkpt><trkpt lat="39.51340436884497" lon="8.494082727778496"><ele>113.19999999999999</ele><time>2026-04-27T14:41:34.024Z</time></trkpt><trkpt lat="39.51331680196764" lon="8.494134843475619"><ele>114.39999999999999</ele><time>2026-04-27T14:41:36.024Z</time></trkpt><trkpt lat="39.51322435417198" lon="8.494202782421688"><ele>115.60000000000001</ele><time>2026-04-27T14:41:38.024Z</time></trkpt><trkpt lat="39.51310733531991" lon="8.494217143053413"><ele>116.80000000000001</ele><time>2026-04-27T14:41:40.024Z</time></trkpt><trkpt lat="39.51299064203451" lon="8.49424091233936"><ele>118.0</ele><time>2026-04-27T14:41:42.024Z</time></trkpt><trkpt lat="39.512881400414926" lon="8.494285851755249"><ele>118.83333333333334</ele><time>2026-04-27T14:41:44.024Z</time></trkpt><trkpt lat="39.512814393969656" lon="8.494310150144152"><ele>119.66666666666667</ele><time>2026-04-27T14:41:45.024Z</time></trkpt><trkpt lat="39.51275572257194" lon="8.494340509104086"><ele>120.5</ele><time>2026-04-27T14:41:46.024Z</time></trkpt><trkpt lat="39.51267254618553" lon="8.494411654577739"><ele>121.33333333333334</ele><time>2026-04-27T14:41:48.024Z</time></trkpt><trkpt lat="39.51256749084874" lon="8.494515488149283"><ele>122.16666666666667</ele><time>2026-04-27T14:41:50.024Z</time></trkpt><trkpt lat="39.51251363361426" lon="8.494564329876102"><ele>123.0</ele><time>2026-04-27T14:41:51.024Z</time></trkpt><trkpt lat="39.51245416176487" lon="8.494593241879278"><ele>123.0</ele><time>2026-04-27T14:41:52.024Z</time></trkpt><trkpt lat="39.51232947849023" lon="8.49461475568264"><ele>123.00000000000001</ele><time>2026-04-27T14:41:54.024Z</time></trkpt><trkpt lat="39.5122602059879" lon="8.494611085926802"><ele>123.00000000000001</ele><time>2026-04-27T14:41:55.024Z</time></trkpt><trkpt lat="39.51212411981957" lon="8.494579906735705"><ele>123.0</ele><time>2026-04-27T14:41:57.024Z</time></trkpt><trkpt lat="39.512042309864036" lon="8.494563581826908"><ele>123.0</ele><time>2026-04-27T14:41:58.024Z</time></trkpt><trkpt lat="39.51196424539475" lon="8.49453626045681"><ele>124.42857142857144</ele><time>2026-04-27T14:41:59.024Z</time></trkpt><trkpt lat="39.5118937148929" lon="8.494528344804026"><ele>125.85714285714286</ele><time>2026-04-27T14:42:00.024Z</time></trkpt><trkpt lat="39.51182316479829" lon="8.494520359471151"><ele>127.28571428571429</ele><time>2026-04-27T14:42:01.025Z</time></trkpt><trkpt lat="39.51175261296797" lon="8.49450974344604"><ele>128.71428571428572</ele><time>2026-04-27T14:42:02.025Z</time></trkpt><trkpt lat="39.5116817361202" lon="8.49448837985023"><ele>130.14285714285714</ele><time>2026-04-27T14:42:03.025Z</time></trkpt><trkpt lat="39.511614100798155" lon="8.494455740622996"><ele>131.57142857142858</ele><time>2026-04-27T14:42:04.025Z</time></trkpt><trkpt lat="39.511538910435426" lon="8.494443891257676"><ele>133.0</ele><time>2026-04-27T14:42:05.025Z</time></trkpt><trkpt lat="39.51147137222459" lon="8.494457988213044"><ele>133.0</ele><time>2026-04-27T14:42:06.025Z</time></trkpt><trkpt lat="39.51140443949773" lon="8.494490248488656"><ele>133.0</ele><time>2026-04-27T14:42:07.025Z</time></trkpt><trkpt lat="39.51129355150285" lon="8.494512278311698"><ele>133.0</ele><time>2026-04-27T14:42:09.025Z</time></trkpt><trkpt lat="39.51117567643715" lon="8.494460304838865"><ele>133.0</ele><time>2026-04-27T14:42:11.025Z</time></trkpt><trkpt lat="39.511045690697166" lon="8.494440487309506"><ele>133.0</ele><time>2026-04-27T14:42:13.025Z</time></trkpt><trkpt lat="39.510970237328024" lon="8.494448456984598"><ele>133.5</ele><time>2026-04-27T14:42:14.025Z</time></trkpt><trkpt lat="39.51089634979903" lon="8.49447219900344"><ele>134.0</ele><time>2026-04-27T14:42:15.025Z</time></trkpt><trkpt lat="39.51081515028204" lon="8.494510184152947"><ele>134.5</ele><time>2026-04-27T14:42:16.025Z</time></trkpt><trkpt lat="39.51073975401543" lon="8.494544111279165"><ele>135.0</ele><time>2026-04-27T14:42:17.025Z</time></trkpt><trkpt lat="39.51065351648763" lon="8.494591163262754"><ele>135.5</ele><time>2026-04-27T14:42:18.025Z</time></trkpt><trkpt lat="39.51056954954038" lon="8.494627113811799"><ele>136.0</ele><time>2026-04-27T14:42:19.025Z</time></trkpt><trkpt lat="39.5104771977845" lon="8.494670310916403"><ele>137.0</ele><time>2026-04-27T14:42:20.025Z</time></trkpt><trkpt lat="39.51041064161543" lon="8.494702499608687"><ele>138.0</ele><time>2026-04-27T14:42:21.025Z</time></trkpt><trkpt lat="39.5103314333009" lon="8.49473395771692"><ele>139.0</ele><time>2026-04-27T14:42:22.025Z</time></trkpt><trkpt lat="39.51024575751472" lon="8.494768764109052"><ele>140.0</ele><time>2026-04-27T14:42:23.025Z</time></trkpt><trkpt lat="39.51016643772448" lon="8.494808611041616"><ele>141.0</ele><time>2026-04-27T14:42:24.025Z</time></trkpt><trkpt lat="39.51008522829402" lon="8.494836533560918"><ele>142.0</ele><time>2026-04-27T14:42:25.025Z</time></trkpt><trkpt lat="39.5100124090488" lon="8.494873200723516"><ele>142.0</ele><time>2026-04-27T14:42:26.025Z</time></trkpt><trkpt lat="39.50993715621494" lon="8.494897238352854"><ele>142.0</ele><time>2026-04-27T14:42:27.023Z</time></trkpt><trkpt lat="39.509827126021975" lon="8.494975350321367"><ele>142.0</ele><time>2026-04-27T14:42:29.023Z</time></trkpt><trkpt lat="39.5097731341534" lon="8.495031509909284"><ele>142.0</ele><time>2026-04-27T14:42:30.023Z</time></trkpt><trkpt lat="39.50965725516863" lon="8.495124644254155"><ele>142.0</ele><time>2026-04-27T14:42:32.023Z</time></trkpt><trkpt lat="39.50959119691488" lon="8.495145548130324"><ele>142.83333333333334</ele><time>2026-04-27T14:42:33.023Z</time></trkpt><trkpt lat="39.50951776673615" lon="8.495157107181022"><ele>143.66666666666669</ele><time>2026-04-27T14:42:34.024Z</time></trkpt><trkpt lat="39.50944745637637" lon="8.495172380482115"><ele>144.5</ele><time>2026-04-27T14:42:35.024Z</time></trkpt><trkpt lat="39.50936348620128" lon="8.495182750599442"><ele>145.33333333333334</ele><time>2026-04-27T14:42:36.024Z</time></trkpt><trkpt lat="39.509281930777554" lon="8.49520834007691"><ele>146.16666666666666</ele><time>2026-04-27T14:42:37.023Z</time></trkpt><trkpt lat="39.50919902340407" lon="8.495244666166364"><ele>147.0</ele><time>2026-04-27T14:42:38.023Z</time></trkpt><trkpt lat="39.50911837696081" lon="8.49529025249931"><ele>147.0</ele><time>2026-04-27T14:42:39.024Z</time></trkpt><trkpt lat="39.509045749848596" lon="8.495343884489138"><ele>147.0</ele><time>2026-04-27T14:42:40.023Z</time></trkpt><trkpt lat="39.50898985490418" lon="8.495412130696941"><ele>147.0</ele><time>2026-04-27T14:42:41.023Z</time></trkpt><trkpt lat="39.508952737550345" lon="8.495482167767335"><ele>147.0</ele><time>2026-04-27T14:42:42.023Z</time></trkpt><trkpt lat="39.508886510762366" lon="8.49553762918119"><ele>147.0</ele><time>2026-04-27T14:42:54.023Z</time></trkpt><trkpt lat="39.50880655475668" lon="8.495588397524125"><ele>147.0</ele><time>2026-04-27T14:42:59.023Z</time></trkpt><trkpt lat="39.5087411058679" lon="8.495602668222352"><ele>148.5</ele><time>2026-04-27T14:43:01.023Z</time></trkpt><trkpt lat="39.508671145001756" lon="8.495582959154833"><ele>150.0</ele><time>2026-04-27T14:43:03.023Z</time></trkpt><trkpt lat="39.508592054722484" lon="8.495554462248315"><ele>151.5</ele><time>2026-04-27T14:43:05.023Z</time></trkpt><trkpt lat="39.50857193595538" lon="8.49545308357211"><ele>153.0</ele><time>2026-04-27T14:43:09.023Z</time></trkpt><trkpt lat="39.50860813165455" lon="8.49531607449627"><ele>154.5</ele><time>2026-04-27T14:43:11.023Z</time></trkpt><trkpt lat="39.50861563463725" lon="8.495184497997721"><ele>156.0</ele><time>2026-04-27T14:43:13.023Z</time></trkpt><trkpt lat="39.508571786158946" lon="8.495038706962012"><ele>157.2</ele><time>2026-04-27T14:43:15.023Z</time></trkpt><trkpt lat="39.50855410694267" lon="8.494888143827371"><ele>158.39999999999998</ele><time>2026-04-27T14:43:17.023Z</time></trkpt><trkpt lat="39.508612891693176" lon="8.49482233100351"><ele>159.6</ele><time>2026-04-27T14:43:19.023Z</time></trkpt><trkpt lat="39.508743128398116" lon="8.494855575337965"><ele>160.79999999999998</ele><time>2026-04-27T14:43:21.023Z</time></trkpt><trkpt lat="39.50883209912739" lon="8.494878729628267"><ele>162.0</ele><time>2026-04-27T14:43:23.023Z</time></trkpt><trkpt lat="39.508893679429654" lon="8.494842918305414"><ele>162.66666666666666</ele><time>2026-04-27T14:43:24.023Z</time></trkpt><trkpt lat="39.50896642334057" lon="8.494797399795301"><ele>163.33333333333334</ele><time>2026-04-27T14:43:25.024Z</time></trkpt><trkpt lat="39.50904282776237" lon="8.494745063895598"><ele>164.0</ele><time>2026-04-27T14:43:26.024Z</time></trkpt><trkpt lat="39.50911213236834" lon="8.494697110761557"><ele>164.66666666666669</ele><time>2026-04-27T14:43:27.024Z</time></trkpt><trkpt lat="39.50917160751892" lon="8.494647884645413"><ele>165.33333333333334</ele><time>2026-04-27T14:43:28.024Z</time></trkpt><trkpt lat="39.509238193755486" lon="8.494599941563912"><ele>166.0</ele><time>2026-04-27T14:43:29.024Z</time></trkpt><trkpt lat="39.509301495199715" lon="8.494557479336025"><ele>166.0</ele><time>2026-04-27T14:43:30.024Z</time></trkpt><trkpt lat="39.509359010962925" lon="8.494507294724066"><ele>166.0</ele><time>2026-04-27T14:43:31.024Z</time></trkpt><trkpt lat="39.50941850662673" lon="8.494453759982356"><ele>166.0</ele><time>2026-04-27T14:43:32.024Z</time></trkpt><trkpt lat="39.509471501571014" lon="8.494389135073078"><ele>166.0</ele><time>2026-04-27T14:43:33.024Z</time></trkpt><trkpt lat="39.50950149312976" lon="8.49431510521651"><ele>166.0</ele><time>2026-04-27T14:43:34.024Z</time></trkpt><trkpt lat="39.50951078182736" lon="8.494226775722428"><ele>166.0</ele><time>2026-04-27T14:43:35.024Z</time></trkpt><trkpt lat="39.50950682477828" lon="8.49412282203428"><ele>166.0</ele><time>2026-04-27T14:43:36.024Z</time></trkpt><trkpt lat="39.509488541200525" lon="8.494018419216774"><ele>166.0</ele><time>2026-04-27T14:43:37.024Z</time></trkpt><trkpt lat="39.50946129475423" lon="8.49391190412787"><ele>166.0</ele><time>2026-04-27T14:43:38.024Z</time></trkpt><trkpt lat="39.509429976588244" lon="8.49381753576986"><ele>166.0</ele><time>2026-04-27T14:43:39.024Z</time></trkpt><trkpt lat="39.509414340480994" lon="8.49373585261479"><ele>166.0</ele><time>2026-04-27T14:43:40.024Z</time></trkpt><trkpt lat="39.509474904603664" lon="8.49359924846661"><ele>166.0</ele><time>2026-04-27T14:43:42.024Z</time></trkpt><trkpt lat="39.509498017862995" lon="8.493507714100888"><ele>166.0</ele><time>2026-04-27T14:43:43.024Z</time></trkpt><trkpt lat="39.509508524898756" lon="8.493406643131582"><ele>166.0</ele><time>2026-04-27T14:43:44.024Z</time></trkpt><trkpt lat="39.50956538402459" lon="8.49329676985193"><ele>166.0</ele><time>2026-04-27T14:43:46.024Z</time></trkpt><trkpt lat="39.50967578772647" lon="8.493315434273631"><ele>166.0</ele><time>2026-04-27T14:43:48.024Z</time></trkpt><trkpt lat="39.509727585695444" lon="8.493373848763584"><ele>166.0</ele><time>2026-04-27T14:43:49.024Z</time></trkpt><trkpt lat="39.50978011575869" lon="8.493441818443834"><ele>166.0</ele><time>2026-04-27T14:43:50.024Z</time></trkpt><trkpt lat="39.50984180109868" lon="8.493514941036816"><ele>166.0</ele><time>2026-04-27T14:43:51.024Z</time></trkpt><trkpt lat="39.509903540070034" lon="8.493586516509056"><ele>166.0</ele><time>2026-04-27T14:43:52.024Z</time></trkpt><trkpt lat="39.50995994181956" lon="8.49364832795809"><ele>166.0</ele><time>2026-04-27T14:43:53.024Z</time></trkpt><trkpt lat="39.51001111823207" lon="8.493702533984186"><ele>166.0</ele><time>2026-04-27T14:43:54.024Z</time></trkpt><trkpt lat="39.510123551655134" lon="8.493719572820432"><ele>166.0</ele><time>2026-04-27T14:43:56.024Z</time></trkpt><trkpt lat="39.51018754928772" lon="8.493591499545586"><ele>166.0</ele><time>2026-04-27T14:43:58.024Z</time></trkpt><trkpt lat="39.510167329298625" lon="8.493420127361597"><ele>166.0</ele><time>2026-04-27T14:44:00.024Z</time></trkpt><trkpt lat="39.51014450409404" lon="8.493333204822374"><ele>166.0</ele><time>2026-04-27T14:44:01.024Z</time></trkpt><trkpt lat="39.5101199980345" lon="8.493238579767729"><ele>166.0</ele><time>2026-04-27T14:44:02.024Z</time></trkpt><trkpt lat="39.510100164948724" lon="8.493131998881166"><ele>166.0</ele><time>2026-04-27T14:44:03.024Z</time></trkpt><trkpt lat="39.51006757862735" lon="8.492989837876424"><ele>166.0</ele><time>2026-04-27T14:44:05.024Z</time></trkpt><trkpt lat="39.51001166755658" lon="8.492837971690461"><ele>166.83333333333334</ele><time>2026-04-27T14:44:07.024Z</time></trkpt><trkpt lat="39.50997340655442" lon="8.492740493530407"><ele>167.66666666666669</ele><time>2026-04-27T14:44:08.024Z</time></trkpt><trkpt lat="39.50993932781092" lon="8.492651024359825"><ele>168.5</ele><time>2026-04-27T14:44:09.024Z</time></trkpt><trkpt lat="39.50989882848052" lon="8.492550844969987"><ele>169.33333333333334</ele><time>2026-04-27T14:44:10.024Z</time></trkpt><trkpt lat="39.509874611682285" lon="8.492448376563042"><ele>170.16666666666666</ele><time>2026-04-27T14:44:11.024Z</time></trkpt><trkpt lat="39.50985985652858" lon="8.492346541368155"><ele>171.0</ele><time>2026-04-27T14:44:12.024Z</time></trkpt><trkpt lat="39.50981558686587" lon="8.492206874904223"><ele>171.0</ele><time>2026-04-27T14:44:14.024Z</time></trkpt><trkpt lat="39.509774320549916" lon="8.492142159578377"><ele>171.0</ele><time>2026-04-27T14:44:15.024Z</time></trkpt><trkpt lat="39.509726547127286" lon="8.492074954750267"><ele>171.0</ele><time>2026-04-27T14:44:16.024Z</time></trkpt><trkpt lat="39.509669250516744" lon="8.4919381163817"><ele>171.0</ele><time>2026-04-27T14:44:18.024Z</time></trkpt><trkpt lat="39.5097179094686" lon="8.491832080799027"><ele>171.0</ele><time>2026-04-27T14:44:20.025Z</time></trkpt><trkpt lat="39.50982442490257" lon="8.49180563370878"><ele>172.83333333333334</ele><time>2026-04-27T14:44:22.025Z</time></trkpt><trkpt lat="39.50995278586044" lon="8.491834595254893"><ele>174.66666666666666</ele><time>2026-04-27T14:44:24.025Z</time></trkpt><trkpt lat="39.5100336377339" lon="8.491863704357812"><ele>176.5</ele><time>2026-04-27T14:44:25.025Z</time></trkpt><trkpt lat="39.51010489818712" lon="8.491881267471616"><ele>178.33333333333331</ele><time>2026-04-27T14:44:26.025Z</time></trkpt><trkpt lat="39.51018431881504" lon="8.491896216121877"><ele>180.16666666666666</ele><time>2026-04-27T14:44:27.025Z</time></trkpt><trkpt lat="39.51025616940915" lon="8.491925557627038"><ele>182.0</ele><time>2026-04-27T14:44:28.025Z</time></trkpt><trkpt lat="39.51031868024146" lon="8.491965876582565"><ele>182.0</ele><time>2026-04-27T14:44:29.025Z</time></trkpt><trkpt lat="39.510425837888235" lon="8.491993123671358"><ele>182.0</ele><time>2026-04-27T14:44:31.025Z</time></trkpt><trkpt lat="39.51044388033755" lon="8.491885793262341"><ele>182.0</ele><time>2026-04-27T14:44:33.024Z</time></trkpt><trkpt lat="39.510384574586" lon="8.49175967552269"><ele>182.0</ele><time>2026-04-27T14:44:35.024Z</time></trkpt><trkpt lat="39.51032922611895" lon="8.491715315637377"><ele>182.0</ele><time>2026-04-27T14:44:36.024Z</time></trkpt><trkpt lat="39.51027938710638" lon="8.49166538441004"><ele>182.0</ele><time>2026-04-27T14:44:37.024Z</time></trkpt><trkpt lat="39.51024231972435" lon="8.491592780014543"><ele>182.0</ele><time>2026-04-27T14:44:38.024Z</time></trkpt><trkpt lat="39.510221478049466" lon="8.49151191374317"><ele>182.0</ele><time>2026-04-27T14:44:39.024Z</time></trkpt><trkpt lat="39.5102770245578" lon="8.491403404139026"><ele>182.0</ele><time>2026-04-27T14:44:41.023Z</time></trkpt><trkpt lat="39.51037104823756" lon="8.49129909293854"><ele>182.0</ele><time>2026-04-27T14:44:43.024Z</time></trkpt><trkpt lat="39.5104085825713" lon="8.491222446450612"><ele>182.0</ele><time>2026-04-27T14:44:44.024Z</time></trkpt><trkpt lat="39.51042856318715" lon="8.491135487260776"><ele>182.0</ele><time>2026-04-27T14:44:45.024Z</time></trkpt><trkpt lat="39.5104261769734" lon="8.491041714374163"><ele>180.16666666666666</ele><time>2026-04-27T14:44:46.023Z</time></trkpt><trkpt lat="39.51040858319988" lon="8.490938404049256"><ele>178.33333333333331</ele><time>2026-04-27T14:44:47.023Z</time></trkpt><trkpt lat="39.51039209716621" lon="8.490846372349216"><ele>176.5</ele><time>2026-04-27T14:44:48.023Z</time></trkpt><trkpt lat="39.51038941151293" lon="8.49074243433809"><ele>174.66666666666666</ele><time>2026-04-27T14:44:49.023Z</time></trkpt><trkpt lat="39.51039391814012" lon="8.490652100610118"><ele>172.83333333333334</ele><time>2026-04-27T14:44:50.023Z</time></trkpt><trkpt lat="39.51038359844811" lon="8.490570585702185"><ele>171.0</ele><time>2026-04-27T14:44:51.023Z</time></trkpt><trkpt lat="39.510313847558" lon="8.490433757226304"><ele>177.20000000000002</ele><time>2026-04-27T14:44:53.023Z</time></trkpt><trkpt lat="39.510278821142926" lon="8.490361751819787"><ele>183.4</ele><time>2026-04-27T14:44:54.024Z</time></trkpt><trkpt lat="39.51026866065361" lon="8.490232508282457"><ele>189.6</ele><time>2026-04-27T14:44:56.024Z</time></trkpt><trkpt lat="39.510295444987854" lon="8.490098762498475"><ele>195.8</ele><time>2026-04-27T14:44:58.024Z</time></trkpt><trkpt lat="39.510288135479954" lon="8.489954154177404"><ele>202.0</ele><time>2026-04-27T14:45:00.024Z</time></trkpt><trkpt lat="39.510255613677664" lon="8.489874126228113"><ele>202.0</ele><time>2026-04-27T14:45:01.024Z</time></trkpt><trkpt lat="39.51021745363106" lon="8.489801247321818"><ele>202.0</ele><time>2026-04-27T14:45:02.024Z</time></trkpt><trkpt lat="39.51018830761672" lon="8.489651728377314"><ele>202.0</ele><time>2026-04-27T14:45:04.024Z</time></trkpt><trkpt lat="39.51025968473304" lon="8.4895169502081"><ele>202.0</ele><time>2026-04-27T14:45:06.024Z</time></trkpt><trkpt lat="39.51036820275151" lon="8.489415173470395"><ele>202.0</ele><time>2026-04-27T14:45:08.024Z</time></trkpt><trkpt lat="39.5104363831462" lon="8.489379491998939"><ele>201.99999999999997</ele><time>2026-04-27T14:45:09.024Z</time></trkpt><trkpt lat="39.51050992638713" lon="8.489363220633324"><ele>202.0</ele><time>2026-04-27T14:45:10.024Z</time></trkpt><trkpt lat="39.51057702429643" lon="8.489368683534867"><ele>202.0</ele><time>2026-04-27T14:45:11.024Z</time></trkpt><trkpt lat="39.510638233903144" lon="8.48930272202086"><ele>202.0</ele><time>2026-04-27T14:45:13.024Z</time></trkpt><trkpt lat="39.51056601502827" lon="8.489223871361245"><ele>201.99999999999997</ele><time>2026-04-27T14:45:15.024Z</time></trkpt><trkpt lat="39.51044419748887" lon="8.489257657598017"><ele>202.0</ele><time>2026-04-27T14:45:17.024Z</time></trkpt><trkpt lat="39.51031125720312" lon="8.489310077637212"><ele>201.99999999999997</ele><time>2026-04-27T14:45:19.024Z</time></trkpt><trkpt lat="39.51024159664761" lon="8.489332960812309"><ele>202.0</ele><time>2026-04-27T14:45:20.024Z</time></trkpt><trkpt lat="39.51016993349385" lon="8.489345119914013"><ele>202.0</ele><time>2026-04-27T14:45:21.024Z</time></trkpt><trkpt lat="39.51010489052461" lon="8.489377850128545"><ele>202.0</ele><time>2026-04-27T14:45:22.024Z</time></trkpt><trkpt lat="39.510043479741704" lon="8.48952168584083"><ele>201.99999999999997</ele><time>2026-04-27T14:45:24.024Z</time></trkpt><trkpt lat="39.51001924455594" lon="8.489603033548596"><ele>202.0</ele><time>2026-04-27T14:45:25.024Z</time></trkpt><trkpt lat="39.509985161514514" lon="8.489673102928812"><ele>201.99999999999997</ele><time>2026-04-27T14:45:26.024Z</time></trkpt><trkpt lat="39.5099359027944" lon="8.489813003553316"><ele>202.0</ele><time>2026-04-27T14:45:28.024Z</time></trkpt><trkpt lat="39.509922127296385" lon="8.489896880683878"><ele>202.0</ele><time>2026-04-27T14:45:29.024Z</time></trkpt><trkpt lat="39.50991213386466" lon="8.489977823358803"><ele>202.0</ele><time>2026-04-27T14:45:30.024Z</time></trkpt><trkpt lat="39.50990628679415" lon="8.490061591099844"><ele>201.99999999999997</ele><time>2026-04-27T14:45:31.024Z</time></trkpt><trkpt lat="39.50989458341161" lon="8.490192743236873"><ele>202.0</ele><time>2026-04-27T14:45:33.024Z</time></trkpt><trkpt lat="39.5098816952908" lon="8.490338369342991"><ele>202.0</ele><time>2026-04-27T14:45:35.024Z</time></trkpt><trkpt lat="39.5098753697035" lon="8.490484324284388"><ele>202.0</ele><time>2026-04-27T14:45:37.024Z</time></trkpt><trkpt lat="39.509800010318386" lon="8.49049426258481"><ele>202.0</ele><time>2026-04-27T14:45:40.024Z</time></trkpt><trkpt lat="39.50980007736667" lon="8.490391690405225"><ele>202.0</ele><time>2026-04-27T14:45:42.024Z</time></trkpt><trkpt lat="39.50978938466673" lon="8.490236515548581"><ele>202.0</ele><time>2026-04-27T14:45:44.024Z</time></trkpt><trkpt lat="39.509774915623524" lon="8.490148191660058"><ele>202.0</ele><time>2026-04-27T14:45:45.024Z</time></trkpt><trkpt lat="39.50975257597934" lon="8.490053725754407"><ele>202.0</ele><time>2026-04-27T14:45:46.024Z</time></trkpt><trkpt lat="39.5097182128848" lon="8.489931685629816"><ele>202.0</ele><time>2026-04-27T14:45:48.025Z</time></trkpt><trkpt lat="39.509673551883914" lon="8.489793089524207"><ele>202.0</ele><time>2026-04-27T14:45:50.025Z</time></trkpt><trkpt lat="39.50963870047774" lon="8.489714539913802"><ele>202.0</ele><time>2026-04-27T14:45:51.025Z</time></trkpt><trkpt lat="39.50958508689929" lon="8.489617916099217"><ele>201.71428571428572</ele><time>2026-04-27T14:45:53.025Z</time></trkpt><trkpt lat="39.509600935444745" lon="8.489536023307288"><ele>201.42857142857142</ele><time>2026-04-27T14:45:58.025Z</time></trkpt><trkpt lat="39.509674768863945" lon="8.489495891212858"><ele>201.14285714285717</ele><time>2026-04-27T14:46:01.025Z</time></trkpt><trkpt lat="39.509660951085614" lon="8.489416028125566"><ele>200.85714285714286</ele><time>2026-04-27T14:46:07.025Z</time></trkpt><trkpt lat="39.509607573298275" lon="8.489511436860596"><ele>200.57142857142858</ele><time>2026-04-27T14:46:19.025Z</time></trkpt><trkpt lat="39.50956075172172" lon="8.489579460589107"><ele>200.2857142857143</ele><time>2026-04-27T14:46:23.025Z</time></trkpt><trkpt lat="39.5094944128215" lon="8.48957491952247"><ele>200.0</ele><time>2026-04-27T14:46:27.025Z</time></trkpt><trkpt lat="39.509416190044014" lon="8.489569626959906"><ele>201.66666666666669</ele><time>2026-04-27T14:46:31.025Z</time></trkpt><trkpt lat="39.50932653862088" lon="8.48959732123357"><ele>203.33333333333334</ele><time>2026-04-27T14:46:34.025Z</time></trkpt><trkpt lat="39.50925458758278" lon="8.489617065945616"><ele>205.0</ele><time>2026-04-27T14:46:36.025Z</time></trkpt><trkpt lat="39.509174995540086" lon="8.489681355504507"><ele>206.66666666666669</ele><time>2026-04-27T14:46:39.025Z</time></trkpt><trkpt lat="39.50912421017031" lon="8.4897483164461"><ele>208.33333333333334</ele><time>2026-04-27T14:46:41.025Z</time></trkpt><trkpt lat="39.5090625156445" lon="8.48984744772385"><ele>210.0</ele><time>2026-04-27T14:46:43.025Z</time></trkpt><trkpt lat="39.50901302929841" lon="8.48996578132507"><ele>210.0</ele><time>2026-04-27T14:46:45.025Z</time></trkpt><trkpt lat="39.508992122148335" lon="8.490073787094518"><ele>210.0</ele><time>2026-04-27T14:46:47.024Z</time></trkpt><trkpt lat="39.50898684688546" lon="8.490198131997742"><ele>210.0</ele><time>2026-04-27T14:46:49.024Z</time></trkpt><trkpt lat="39.50900032788771" lon="8.490360636695508"><ele>210.0</ele><time>2026-04-27T14:46:51.025Z</time></trkpt><trkpt lat="39.508994899601696" lon="8.490517211666539"><ele>210.0</ele><time>2026-04-27T14:46:53.025Z</time></trkpt><trkpt lat="39.5089286043433" lon="8.490622067293257"><ele>210.66666666666666</ele><time>2026-04-27T14:46:55.025Z</time></trkpt><trkpt lat="39.508873144387465" lon="8.49067693459256"><ele>211.33333333333331</ele><time>2026-04-27T14:46:56.025Z</time></trkpt><trkpt lat="39.50881165436171" lon="8.490726897835307"><ele>212.0</ele><time>2026-04-27T14:46:57.025Z</time></trkpt><trkpt lat="39.50874625366664" lon="8.490768924408682"><ele>212.66666666666666</ele><time>2026-04-27T14:46:58.025Z</time></trkpt><trkpt lat="39.50864598130118" lon="8.490841054447834"><ele>213.33333333333331</ele><time>2026-04-27T14:47:00.025Z</time></trkpt><trkpt lat="39.50856751669786" lon="8.490954442534171"><ele>214.0</ele><time>2026-04-27T14:47:02.025Z</time></trkpt><trkpt lat="39.508480637712" lon="8.491081209896688"><ele>212.0</ele><time>2026-04-27T14:47:04.025Z</time></trkpt><trkpt lat="39.508379013493226" lon="8.491108801947862"><ele>209.99999999999997</ele><time>2026-04-27T14:47:06.025Z</time></trkpt><trkpt lat="39.50825215807655" lon="8.491066678882891"><ele>208.0</ele><time>2026-04-27T14:47:08.025Z</time></trkpt><trkpt lat="39.508177802590325" lon="8.491045915866179"><ele>206.0</ele><time>2026-04-27T14:47:09.025Z</time></trkpt><trkpt lat="39.50810088665029" lon="8.491016781662957"><ele>204.0</ele><time>2026-04-27T14:47:10.025Z</time></trkpt><trkpt lat="39.508038517071036" lon="8.490986844702796"><ele>204.0</ele><time>2026-04-27T14:47:11.025Z</time></trkpt><trkpt lat="39.507920460399674" lon="8.49096815230451"><ele>204.0</ele><time>2026-04-27T14:47:13.025Z</time></trkpt><trkpt lat="39.507803389239854" lon="8.491002589379187"><ele>204.0</ele><time>2026-04-27T14:47:15.025Z</time></trkpt><trkpt lat="39.507748409259804" lon="8.491048896139342"><ele>204.0</ele><time>2026-04-27T14:47:16.025Z</time></trkpt><trkpt lat="39.507707012063506" lon="8.491111690526754"><ele>204.0</ele><time>2026-04-27T14:47:17.025Z</time></trkpt><trkpt lat="39.50767376092665" lon="8.491195820713488"><ele>204.0</ele><time>2026-04-27T14:47:18.025Z</time></trkpt><trkpt lat="39.507640639168436" lon="8.491288524596682"><ele>204.71428571428572</ele><time>2026-04-27T14:47:19.025Z</time></trkpt><trkpt lat="39.50761697836248" lon="8.491381251357707"><ele>205.42857142857144</ele><time>2026-04-27T14:47:20.025Z</time></trkpt><trkpt lat="39.50760406623529" lon="8.491467984493367"><ele>206.14285714285714</ele><time>2026-04-27T14:47:21.025Z</time></trkpt><trkpt lat="39.50758064411943" lon="8.491557021309676"><ele>206.85714285714286</ele><time>2026-04-27T14:47:22.025Z</time></trkpt><trkpt lat="39.50754215077734" lon="8.491627897939011"><ele>207.57142857142856</ele><time>2026-04-27T14:47:23.025Z</time></trkpt><trkpt lat="39.50748587318918" lon="8.491690740922252"><ele>208.28571428571428</ele><time>2026-04-27T14:47:24.025Z</time></trkpt><trkpt lat="39.50741854937825" lon="8.491746545229585"><ele>209.0</ele><time>2026-04-27T14:47:25.025Z</time></trkpt><trkpt lat="39.50736439599104" lon="8.491803610061059"><ele>209.0</ele><time>2026-04-27T14:47:26.025Z</time></trkpt><trkpt lat="39.50727807433774" lon="8.491868459007685"><ele>209.0</ele><time>2026-04-27T14:47:28.025Z</time></trkpt><trkpt lat="39.50721085800869" lon="8.4918426993729"><ele>209.0</ele><time>2026-04-27T14:47:30.025Z</time></trkpt><trkpt lat="39.50856751669786" lon="8.490954442534171"><ele>208.0</ele><time>2026-04-27T14:47:02.025Z</time></trkpt><trkpt lat="39.508480637712" lon="8.491081209896688"><ele>207.0</ele><time>2026-04-27T14:47:04.025Z</time></trkpt><trkpt lat="39.508379013493226" lon="8.491108801947862"><ele>206.0</ele><time>2026-04-27T14:47:06.025Z</time></trkpt><trkpt lat="39.50825215807655" lon="8.491066678882891"><ele>205.0</ele><time>2026-04-27T14:47:08.025Z</time></trkpt><trkpt lat="39.508177802590325" lon="8.491045915866179"><ele>204.0</ele><time>2026-04-27T14:47:09.025Z</time></trkpt><trkpt lat="39.50810088665029" lon="8.491016781662957"><ele>204.0</ele><time>2026-04-27T14:47:10.025Z</time></trkpt><trkpt lat="39.508038517071036" lon="8.490986844702796"><ele>204.0</ele><time>2026-04-27T14:47:11.025Z</time></trkpt><trkpt lat="39.507920460399674" lon="8.49096815230451"><ele>204.0</ele><time>2026-04-27T14:47:13.025Z</time></trkpt><trkpt lat="39.507803389239854" lon="8.491002589379187"><ele>204.0</ele><time>2026-04-27T14:47:15.025Z</time></trkpt><trkpt lat="39.507748409259804" lon="8.491048896139342"><ele>204.0</ele><time>2026-04-27T14:47:16.025Z</time></trkpt><trkpt lat="39.507707012063506" lon="8.491111690526754"><ele>204.0</ele><time>2026-04-27T14:47:17.025Z</time></trkpt><trkpt lat="39.50767376092665" lon="8.491195820713488"><ele>204.71428571428572</ele><time>2026-04-27T14:47:18.025Z</time></trkpt><trkpt lat="39.507640639168436" lon="8.491288524596682"><ele>205.42857142857144</ele><time>2026-04-27T14:47:19.025Z</time></trkpt><trkpt lat="39.50761697836248" lon="8.491381251357707"><ele>206.14285714285714</ele><time>2026-04-27T14:47:20.025Z</time></trkpt><trkpt lat="39.50760406623529" lon="8.491467984493367"><ele>206.85714285714286</ele><time>2026-04-27T14:47:21.025Z</time></trkpt><trkpt lat="39.50758064411943" lon="8.491557021309676"><ele>207.57142857142856</ele><time>2026-04-27T14:47:22.025Z</time></trkpt><trkpt lat="39.50754215077734" lon="8.491627897939011"><ele>208.28571428571428</ele><time>2026-04-27T14:47:23.025Z</time></trkpt><trkpt lat="39.50748587318918" lon="8.491690740922252"><ele>209.0</ele><time>2026-04-27T14:47:24.025Z</time></trkpt><trkpt lat="39.50741854937825" lon="8.491746545229585"><ele>209.0</ele><time>2026-04-27T14:47:25.025Z</time></trkpt><trkpt lat="39.50736439599104" lon="8.491803610061059"><ele>209.0</ele><time>2026-04-27T14:47:26.025Z</time></trkpt><trkpt lat="39.50727807433774" lon="8.491868459007685"><ele>209.0</ele><time>2026-04-27T14:47:28.025Z</time></trkpt><trkpt lat="39.50721085800869" lon="8.4918426993729"><ele>209.0</ele><time>2026-04-27T14:47:30.025Z</time></trkpt><trkpt lat="39.507100928930186" lon="8.491754497245102"><ele>209.0</ele><time>2026-04-27T14:47:32.025Z</time></trkpt><trkpt lat="39.50704709897099" lon="8.491633174403702"><ele>207.83333333333334</ele><time>2026-04-27T14:47:34.025Z</time></trkpt><trkpt lat="39.50699799286453" lon="8.491509001229748"><ele>206.66666666666669</ele><time>2026-04-27T14:47:36.025Z</time></trkpt><trkpt lat="39.50692062966571" lon="8.49148687937131"><ele>205.5</ele><time>2026-04-27T14:47:38.025Z</time></trkpt><trkpt lat="39.50681808685122" lon="8.491523228311445"><ele>204.33333333333331</ele><time>2026-04-27T14:47:40.026Z</time></trkpt><trkpt lat="39.506757411196155" lon="8.491550174417558"><ele>203.16666666666666</ele><time>2026-04-27T14:47:41.026Z</time></trkpt><trkpt lat="39.50669784804709" lon="8.491585187899114"><ele>202.0</ele><time>2026-04-27T14:47:42.026Z</time></trkpt><trkpt lat="39.50658146166271" lon="8.491628242812531"><ele>201.99999999999997</ele><time>2026-04-27T14:47:44.026Z</time></trkpt><trkpt lat="39.50645841080141" lon="8.491600176796508"><ele>202.0</ele><time>2026-04-27T14:47:46.026Z</time></trkpt><trkpt lat="39.506341535327444" lon="8.491635066797013"><ele>202.0</ele><time>2026-04-27T14:47:48.026Z</time></trkpt><trkpt lat="39.506283091199776" lon="8.491675753901024"><ele>202.0</ele><time>2026-04-27T14:47:49.026Z</time></trkpt><trkpt lat="39.506227056780176" lon="8.49172496112013"><ele>201.99999999999997</ele><time>2026-04-27T14:47:50.026Z</time></trkpt><trkpt lat="39.50618060383688" lon="8.49178336279395"><ele>202.0</ele><time>2026-04-27T14:47:51.026Z</time></trkpt><trkpt lat="39.50612631713682" lon="8.491828779034604"><ele>203.49999999999997</ele><time>2026-04-27T14:47:52.026Z</time></trkpt><trkpt lat="39.5060283243371" lon="8.491820435176294"><ele>205.0</ele><time>2026-04-27T14:47:54.026Z</time></trkpt><trkpt lat="39.50599256796725" lon="8.491675993674205"><ele>206.5</ele><time>2026-04-27T14:47:56.026Z</time></trkpt><trkpt lat="39.505987964389895" lon="8.49158585761633"><ele>208.0</ele><time>2026-04-27T14:47:57.026Z</time></trkpt><trkpt lat="39.5059788109329" lon="8.491490248978046"><ele>209.49999999999997</ele><time>2026-04-27T14:47:58.026Z</time></trkpt><trkpt lat="39.50596876984363" lon="8.491388799760326"><ele>211.0</ele><time>2026-04-27T14:47:59.026Z</time></trkpt><trkpt lat="39.50595671508418" lon="8.491304151614564"><ele>209.16666666666666</ele><time>2026-04-27T14:48:00.026Z</time></trkpt><trkpt lat="39.50594387471761" lon="8.491222364840292"><ele>207.33333333333331</ele><time>2026-04-27T14:48:01.026Z</time></trkpt><trkpt lat="39.50596221903479" lon="8.491066300484665"><ele>205.5</ele><time>2026-04-27T14:48:03.026Z</time></trkpt><trkpt lat="39.50599424849615" lon="8.490986723248055"><ele>203.66666666666669</ele><time>2026-04-27T14:48:04.026Z</time></trkpt><trkpt lat="39.506036327298816" lon="8.490910296919582"><ele>201.83333333333334</ele><time>2026-04-27T14:48:05.026Z</time></trkpt><trkpt lat="39.50611056477826" lon="8.490797992067353"><ele>200.0</ele><time>2026-04-27T14:48:07.026Z</time></trkpt><trkpt lat="39.50615284787685" lon="8.49072404631765"><ele>200.00000000000003</ele><time>2026-04-27T14:48:08.026Z</time></trkpt><trkpt lat="39.50616550641587" lon="8.490614545888914"><ele>200.0</ele><time>2026-04-27T14:48:10.026Z</time></trkpt><trkpt lat="39.506125358640276" lon="8.49050709642175"><ele>200.0</ele><time>2026-04-27T14:48:12.026Z</time></trkpt><trkpt lat="39.50607170846387" lon="8.490390713808647"><ele>200.0</ele><time>2026-04-27T14:48:14.026Z</time></trkpt><trkpt lat="39.50603608164482" lon="8.490315835489158"><ele>200.00000000000003</ele><time>2026-04-27T14:48:15.026Z</time></trkpt><trkpt lat="39.50599893499171" lon="8.490243343569285"><ele>200.0</ele><time>2026-04-27T14:48:16.026Z</time></trkpt><trkpt lat="39.50590649202527" lon="8.490145736318999"><ele>197.50000000000003</ele><time>2026-04-27T14:48:18.026Z</time></trkpt><trkpt lat="39.505834074512656" lon="8.490123743124235"><ele>195.0</ele><time>2026-04-27T14:48:19.026Z</time></trkpt><trkpt lat="39.5057592731944" lon="8.490115779163709"><ele>192.5</ele><time>2026-04-27T14:48:20.026Z</time></trkpt><trkpt lat="39.505681992760884" lon="8.490111894240695"><ele>190.0</ele><time>2026-04-27T14:48:21.026Z</time></trkpt><trkpt lat="39.50561147445964" lon="8.49009992523891"><ele>187.5</ele><time>2026-04-27T14:48:22.026Z</time></trkpt><trkpt lat="39.50551569691596" lon="8.490084035392764"><ele>185.0</ele><time>2026-04-27T14:48:24.026Z</time></trkpt><trkpt lat="39.505426342972065" lon="8.490052819578661"><ele>185.0</ele><time>2026-04-27T14:48:26.026Z</time></trkpt><trkpt lat="39.50540746200691" lon="8.489938339919314"><ele>185.0</ele><time>2026-04-27T14:48:28.026Z</time></trkpt><trkpt lat="39.505433765611535" lon="8.489805749967973"><ele>185.0</ele><time>2026-04-27T14:48:30.027Z</time></trkpt><trkpt lat="39.505451522800975" lon="8.489726854124513"><ele>185.0</ele><time>2026-04-27T14:48:31.027Z</time></trkpt><trkpt lat="39.505478494652394" lon="8.489652838646224"><ele>185.0</ele><time>2026-04-27T14:48:32.027Z</time></trkpt><trkpt lat="39.505560719026434" lon="8.489533164848275"><ele>185.0</ele><time>2026-04-27T14:48:34.027Z</time></trkpt><trkpt lat="39.50559240525587" lon="8.48942609065698"><ele>183.0</ele><time>2026-04-27T14:48:36.027Z</time></trkpt><trkpt lat="39.505590352486" lon="8.489318845672011"><ele>181.0</ele><time>2026-04-27T14:48:38.027Z</time></trkpt><trkpt lat="39.50562357985104" lon="8.489164899208157"><ele>179.0</ele><time>2026-04-27T14:48:40.027Z</time></trkpt><trkpt lat="39.50566328626811" lon="8.489084376580362"><ele>177.0</ele><time>2026-04-27T14:48:41.027Z</time></trkpt><trkpt lat="39.50570045362112" lon="8.489005027049162"><ele>175.0</ele><time>2026-04-27T14:48:42.027Z</time></trkpt><trkpt lat="39.505739416568325" lon="8.488924025148386"><ele>173.0</ele><time>2026-04-27T14:48:43.027Z</time></trkpt><trkpt lat="39.50579414337668" lon="8.488802848003381"><ele>170.75</ele><time>2026-04-27T14:48:45.025Z</time></trkpt><trkpt lat="39.50579825152923" lon="8.488683627647687"><ele>168.5</ele><time>2026-04-27T14:48:47.025Z</time></trkpt><trkpt lat="39.50570697758665" lon="8.488612546245333"><ele>166.25</ele><time>2026-04-27T14:48:49.026Z</time></trkpt><trkpt lat="39.50559253878115" lon="8.488632819663273"><ele>164.0</ele><time>2026-04-27T14:48:51.026Z</time></trkpt><trkpt lat="39.505457411286045" lon="8.488683038523755"><ele>164.0</ele><time>2026-04-27T14:48:53.026Z</time></trkpt><trkpt lat="39.50538372194588" lon="8.48872286076237"><ele>164.0</ele><time>2026-04-27T14:48:54.025Z</time></trkpt><trkpt lat="39.50529980433038" lon="8.488767768800983"><ele>164.0</ele><time>2026-04-27T14:48:55.026Z</time></trkpt><trkpt lat="39.505221117763874" lon="8.488799873998373"><ele>164.0</ele><time>2026-04-27T14:48:56.026Z</time></trkpt><trkpt lat="39.50515641421334" lon="8.488833083512594"><ele>164.0</ele><time>2026-04-27T14:48:57.026Z</time></trkpt><trkpt lat="39.5050935238724" lon="8.488854104043515"><ele>164.0</ele><time>2026-04-27T14:48:58.025Z</time></trkpt><trkpt lat="39.50498236593013" lon="8.488801373351155"><ele>164.0</ele><time>2026-04-27T14:49:00.025Z</time></trkpt><trkpt lat="39.50489021171582" lon="8.488755105197255"><ele>164.0</ele><time>2026-04-27T14:49:02.025Z</time></trkpt><trkpt lat="39.504769198396254" lon="8.488787519109573"><ele>164.0</ele><time>2026-04-27T14:49:04.025Z</time></trkpt><trkpt lat="39.50470126251311" lon="8.488822547845881"><ele>164.0</ele><time>2026-04-27T14:49:05.025Z</time></trkpt><trkpt lat="39.50463117722406" lon="8.488863126468726"><ele>164.0</ele><time>2026-04-27T14:49:06.025Z</time></trkpt><trkpt lat="39.50455907300532" lon="8.4888991285281"><ele>165.83333333333331</ele><time>2026-04-27T14:49:07.025Z</time></trkpt><trkpt lat="39.504490149957604" lon="8.48893379780969"><ele>167.66666666666666</ele><time>2026-04-27T14:49:08.025Z</time></trkpt><trkpt lat="39.50438595349048" lon="8.488961240665992"><ele>169.5</ele><time>2026-04-27T14:49:10.025Z</time></trkpt><trkpt lat="39.50434521270485" lon="8.488860526596463"><ele>171.33333333333334</ele><time>2026-04-27T14:49:12.025Z</time></trkpt><trkpt lat="39.50440608488858" lon="8.488746915012996"><ele>173.16666666666669</ele><time>2026-04-27T14:49:14.025Z</time></trkpt><trkpt lat="39.50445926517832" lon="8.488693435710879"><ele>175.0</ele><time>2026-04-27T14:49:15.025Z</time></trkpt><trkpt lat="39.504511870158495" lon="8.488564125966258"><ele>175.0</ele><time>2026-04-27T14:49:17.025Z</time></trkpt><trkpt lat="39.50452542934638" lon="8.488470057088465"><ele>175.0</ele><time>2026-04-27T14:49:18.025Z</time></trkpt><trkpt lat="39.504534285024825" lon="8.488372396127817"><ele>175.0</ele><time>2026-04-27T14:49:19.025Z</time></trkpt><trkpt lat="39.50456102278745" lon="8.488276263816989"><ele>175.0</ele><time>2026-04-27T14:49:20.026Z</time></trkpt><trkpt lat="39.5046067655594" lon="8.488193422603738"><ele>175.0</ele><time>2026-04-27T14:49:21.026Z</time></trkpt><trkpt lat="39.50466515484415" lon="8.488119302420364"><ele>175.0</ele><time>2026-04-27T14:49:22.026Z</time></trkpt><trkpt lat="39.50472950328533" lon="8.488043564698733"><ele>173.16666666666669</ele><time>2026-04-27T14:49:23.026Z</time></trkpt><trkpt lat="39.50478776439623" lon="8.487976445542786"><ele>171.33333333333334</ele><time>2026-04-27T14:49:24.026Z</time></trkpt><trkpt lat="39.50483380163815" lon="8.487903691704886"><ele>169.5</ele><time>2026-04-27T14:49:25.026Z</time></trkpt><trkpt lat="39.504873122885925" lon="8.487810252467733"><ele>167.66666666666666</ele><time>2026-04-27T14:49:26.026Z</time></trkpt><trkpt lat="39.50490526871881" lon="8.487704065044783"><ele>165.83333333333331</ele><time>2026-04-27T14:49:27.026Z</time></trkpt><trkpt lat="39.50494341531422" lon="8.487587578884654"><ele>164.0</ele><time>2026-04-27T14:49:28.026Z</time></trkpt><trkpt lat="39.50499306723374" lon="8.487474326915443"><ele>163.66666666666666</ele><time>2026-04-27T14:49:29.026Z</time></trkpt><trkpt lat="39.50503123465052" lon="8.48738176280118"><ele>163.33333333333331</ele><time>2026-04-27T14:49:30.026Z</time></trkpt><trkpt lat="39.50506049751169" lon="8.487276732470251"><ele>163.0</ele><time>2026-04-27T14:49:31.026Z</time></trkpt><trkpt lat="39.505084541580516" lon="8.487179946879662"><ele>162.66666666666666</ele><time>2026-04-27T14:49:32.026Z</time></trkpt><trkpt lat="39.50512883598495" lon="8.487094688010664"><ele>162.33333333333334</ele><time>2026-04-27T14:49:33.026Z</time></trkpt><trkpt lat="39.505179612516166" lon="8.487015336950163"><ele>162.0</ele><time>2026-04-27T14:49:34.026Z</time></trkpt><trkpt lat="39.50523219124539" lon="8.486900402010415"><ele>161.0</ele><time>2026-04-27T14:49:36.026Z</time></trkpt><trkpt lat="39.50519236417602" lon="8.486795276272142"><ele>160.0</ele><time>2026-04-27T14:49:38.026Z</time></trkpt><trkpt lat="39.50512239868161" lon="8.486682082767238"><ele>159.0</ele><time>2026-04-27T14:49:40.026Z</time></trkpt><trkpt lat="39.50512916464586" lon="8.486551735274633"><ele>158.0</ele><time>2026-04-27T14:49:42.026Z</time></trkpt><trkpt lat="39.5052267629119" lon="8.486436020651862"><ele>157.0</ele><time>2026-04-27T14:49:44.026Z</time></trkpt><trkpt lat="39.50528036101118" lon="8.486356702821627"><ele>156.0</ele><time>2026-04-27T14:49:45.026Z</time></trkpt><trkpt lat="39.50531807194338" lon="8.486224757075075"><ele>155.0</ele><time>2026-04-27T14:49:47.026Z</time></trkpt><trkpt lat="39.50526939074654" lon="8.48610594746638"><ele>154.0</ele><time>2026-04-27T14:49:49.026Z</time></trkpt><trkpt lat="39.50515021472351" lon="8.486094677439032"><ele>153.0</ele><time>2026-04-27T14:49:51.026Z</time></trkpt><trkpt lat="39.505087270820965" lon="8.486125178476122"><ele>152.0</ele><time>2026-04-27T14:49:52.026Z</time></trkpt><trkpt lat="39.504983301163264" lon="8.486211760618819"><ele>151.83333333333331</ele><time>2026-04-27T14:49:54.026Z</time></trkpt><trkpt lat="39.5049178687073" lon="8.486272966618131"><ele>151.66666666666666</ele><time>2026-04-27T14:49:55.026Z</time></trkpt><trkpt lat="39.50485471360057" lon="8.486315606637401"><ele>151.5</ele><time>2026-04-27T14:49:56.026Z</time></trkpt><trkpt lat="39.50478134545444" lon="8.486356474160978"><ele>151.33333333333334</ele><time>2026-04-27T14:49:57.026Z</time></trkpt><trkpt lat="39.504697300181775" lon="8.48636851408321"><ele>151.16666666666669</ele><time>2026-04-27T14:49:58.026Z</time></trkpt><trkpt lat="39.504620885406496" lon="8.486353173488636"><ele>151.0</ele><time>2026-04-27T14:49:59.026Z</time></trkpt><trkpt lat="39.504547192117606" lon="8.486322848038416"><ele>151.0</ele><time>2026-04-27T14:50:00.026Z</time></trkpt><trkpt lat="39.50447723796147" lon="8.486300059451281"><ele>151.0</ele><time>2026-04-27T14:50:01.026Z</time></trkpt><trkpt lat="39.50440048013491" lon="8.486289015241317"><ele>151.0</ele><time>2026-04-27T14:50:02.026Z</time></trkpt><trkpt lat="39.50433071466151" lon="8.486265494744273"><ele>151.0</ele><time>2026-04-27T14:50:03.026Z</time></trkpt><trkpt lat="39.50425717747217" lon="8.486225351769425"><ele>151.0</ele><time>2026-04-27T14:50:04.026Z</time></trkpt><trkpt lat="39.50419033529902" lon="8.486166404142871"><ele>151.0</ele><time>2026-04-27T14:50:05.026Z</time></trkpt><trkpt lat="39.50412453623101" lon="8.48610708505975"><ele>151.0</ele><time>2026-04-27T14:50:06.026Z</time></trkpt><trkpt lat="39.5040601475993" lon="8.486047602430205"><ele>151.0</ele><time>2026-04-27T14:50:07.026Z</time></trkpt><trkpt lat="39.50394177801244" lon="8.48598949980279"><ele>151.0</ele><time>2026-04-27T14:50:09.026Z</time></trkpt><trkpt lat="39.503833063086525" lon="8.48601473035175"><ele>151.0</ele><time>2026-04-27T14:50:11.026Z</time></trkpt><trkpt lat="39.50379059608484" lon="8.486119467098412"><ele>151.0</ele><time>2026-04-27T14:50:13.026Z</time></trkpt><trkpt lat="39.50381401432538" lon="8.486286150272065"><ele>151.0</ele><time>2026-04-27T14:50:15.027Z</time></trkpt><trkpt lat="39.50386041792117" lon="8.486369365465663"><ele>151.0</ele><time>2026-04-27T14:50:16.027Z</time></trkpt><trkpt lat="39.50390676351838" lon="8.486447298249946"><ele>151.0</ele><time>2026-04-27T14:50:17.027Z</time></trkpt><trkpt lat="39.50393292429284" lon="8.486522229673366"><ele>151.0</ele><time>2026-04-27T14:50:18.027Z</time></trkpt><trkpt lat="39.50388555268597" lon="8.486638905001978"><ele>151.0</ele><time>2026-04-27T14:50:20.027Z</time></trkpt><trkpt lat="39.5037808877043" lon="8.486633381515894"><ele>151.0</ele><time>2026-04-27T14:50:22.027Z</time></trkpt><trkpt lat="39.50372088524524" lon="8.4865947713993"><ele>150.16666666666669</ele><time>2026-04-27T14:50:23.027Z</time></trkpt><trkpt lat="39.50366447388146" lon="8.486556450694682"><ele>149.33333333333334</ele><time>2026-04-27T14:50:24.027Z</time></trkpt><trkpt lat="39.5036031675852" lon="8.486521993031767"><ele>148.5</ele><time>2026-04-27T14:50:25.027Z</time></trkpt><trkpt lat="39.50353846737568" lon="8.486479673025972"><ele>147.66666666666666</ele><time>2026-04-27T14:50:26.027Z</time></trkpt><trkpt lat="39.503480880154626" lon="8.486433602447441"><ele>146.83333333333331</ele><time>2026-04-27T14:50:27.027Z</time></trkpt><trkpt lat="39.503396839542624" lon="8.4863937196909"><ele>146.0</ele><time>2026-04-27T14:50:29.027Z</time></trkpt><trkpt lat="39.50329760476176" lon="8.486448869074284"><ele>146.0</ele><time>2026-04-27T14:50:31.027Z</time></trkpt><trkpt lat="39.50320195025405" lon="8.4865271406998"><ele>146.0</ele><time>2026-04-27T14:50:33.027Z</time></trkpt><trkpt lat="39.50311370558071" lon="8.48660830804899"><ele>146.0</ele><time>2026-04-27T14:50:35.027Z</time></trkpt><trkpt lat="39.50303486973497" lon="8.486592392439109"><ele>146.0</ele><time>2026-04-27T14:50:37.027Z</time></trkpt><trkpt lat="39.50299985311386" lon="8.486473580345985"><ele>146.0</ele><time>2026-04-27T14:50:39.027Z</time></trkpt><trkpt lat="39.50303885545005" lon="8.486324236599593"><ele>143.6</ele><time>2026-04-27T14:50:41.027Z</time></trkpt><trkpt lat="39.503097419424044" lon="8.486208865136973"><ele>141.2</ele><time>2026-04-27T14:50:43.027Z</time></trkpt><trkpt lat="39.50315753635815" lon="8.486071653591141"><ele>138.8</ele><time>2026-04-27T14:50:45.027Z</time></trkpt><trkpt lat="39.5031861392492" lon="8.485979156914933"><ele>136.4</ele><time>2026-04-27T14:50:46.027Z</time></trkpt><trkpt lat="39.503216627703544" lon="8.485827103440867"><ele>134.0</ele><time>2026-04-27T14:50:48.027Z</time></trkpt><trkpt lat="39.50321151840152" lon="8.485679303579513"><ele>134.0</ele><time>2026-04-27T14:50:50.027Z</time></trkpt><trkpt lat="39.503194704128425" lon="8.485600662127307"><ele>134.0</ele><time>2026-04-27T14:50:51.026Z</time></trkpt><trkpt lat="39.50316905110695" lon="8.485518516435018"><ele>134.0</ele><time>2026-04-27T14:50:52.026Z</time></trkpt><trkpt lat="39.50310587007345" lon="8.485425505298275"><ele>134.0</ele><time>2026-04-27T14:50:54.026Z</time></trkpt><trkpt lat="39.503037263365066" lon="8.485365141551805"><ele>134.0</ele><time>2026-04-27T14:50:56.026Z</time></trkpt><trkpt lat="39.50303507091169" lon="8.48522860835154"><ele>134.0</ele><time>2026-04-27T14:50:58.026Z</time></trkpt><trkpt lat="39.503102273090455" lon="8.48511734394537"><ele>132.6</ele><time>2026-04-27T14:51:00.026Z</time></trkpt><trkpt lat="39.50314697413528" lon="8.485023025445875"><ele>131.2</ele><time>2026-04-27T14:51:02.026Z</time></trkpt><trkpt lat="39.50320449626681" lon="8.48494123622363"><ele>129.79999999999998</ele><time>2026-04-27T14:51:04.026Z</time></trkpt><trkpt lat="39.50327983539405" lon="8.484843152185446"><ele>128.4</ele><time>2026-04-27T14:51:06.026Z</time></trkpt><trkpt lat="39.503340431729626" lon="8.48473565854155"><ele>127.0</ele><time>2026-04-27T14:51:08.026Z</time></trkpt><trkpt lat="39.503321525337746" lon="8.484628948363394"><ele>126.39999999999999</ele><time>2026-04-27T14:51:10.026Z</time></trkpt><trkpt lat="39.5032622499148" lon="8.484513210356136"><ele>125.79999999999998</ele><time>2026-04-27T14:51:12.026Z</time></trkpt><trkpt lat="39.503241301771816" lon="8.484435784054194"><ele>125.2</ele><time>2026-04-27T14:51:13.026Z</time></trkpt><trkpt lat="39.50318916541594" lon="8.484303002687872"><ele>124.6</ele><time>2026-04-27T14:51:15.026Z</time></trkpt><trkpt lat="39.50313793314268" lon="8.48425096328369"><ele>124.0</ele><time>2026-04-27T14:51:16.026Z</time></trkpt><trkpt lat="39.50303111148955" lon="8.484211563138524"><ele>124.00000000000001</ele><time>2026-04-27T14:51:18.026Z</time></trkpt><trkpt lat="39.502957067913265" lon="8.48419184883484"><ele>124.0</ele><time>2026-04-27T14:51:20.026Z</time></trkpt><trkpt lat="39.50297024303044" lon="8.48408154896972"><ele>124.0</ele><time>2026-04-27T14:51:22.026Z</time></trkpt><trkpt lat="39.50299398815547" lon="8.48399989619437"><ele>124.0</ele><time>2026-04-27T14:51:23.026Z</time></trkpt><trkpt lat="39.50302639349868" lon="8.483927511123529"><ele>124.00000000000001</ele><time>2026-04-27T14:51:24.026Z</time></trkpt><trkpt lat="39.50308727824848" lon="8.483814049895642"><ele>124.0</ele><time>2026-04-27T14:51:26.026Z</time></trkpt><trkpt lat="39.503130637475515" lon="8.48370610801642"><ele>122.25</ele><time>2026-04-27T14:51:28.026Z</time></trkpt><trkpt lat="39.50316248564336" lon="8.483547336154478"><ele>120.5</ele><time>2026-04-27T14:51:30.026Z</time></trkpt><trkpt lat="39.503188301571164" lon="8.483403904326774"><ele>118.75</ele><time>2026-04-27T14:51:32.026Z</time></trkpt><trkpt lat="39.503191225740096" lon="8.483279089651862"><ele>117.0</ele><time>2026-04-27T14:51:34.026Z</time></trkpt><trkpt lat="39.50322023044588" lon="8.483120022036562"><ele>117.0</ele><time>2026-04-27T14:51:36.026Z</time></trkpt><trkpt lat="39.50323794670662" lon="8.482986408100293"><ele>116.99999999999999</ele><time>2026-04-27T14:51:38.026Z</time></trkpt><trkpt lat="39.5031763036601" lon="8.482944773332527"><ele>116.99999999999999</ele><time>2026-04-27T14:51:53.027Z</time></trkpt><trkpt lat="39.50311559718531" lon="8.482983802116678"><ele>117.0</ele><time>2026-04-27T14:51:55.027Z</time></trkpt><trkpt lat="39.50301149052366" lon="8.483043653236813"><ele>117.0</ele><time>2026-04-27T14:51:58.027Z</time></trkpt><trkpt lat="39.502904858622486" lon="8.483123190134878"><ele>117.0</ele><time>2026-04-27T14:52:00.027Z</time></trkpt><trkpt lat="39.502805136509345" lon="8.483213335360364"><ele>117.0</ele><time>2026-04-27T14:52:02.027Z</time></trkpt><trkpt lat="39.50278609924835" lon="8.483295515251694"><ele>117.0</ele><time>2026-04-27T14:52:03.027Z</time></trkpt><trkpt lat="39.50272600121309" lon="8.483345268534455"><ele>117.0</ele><time>2026-04-27T14:52:04.027Z</time></trkpt><trkpt lat="39.50264673946754" lon="8.483384207346797"><ele>117.0</ele><time>2026-04-27T14:52:05.027Z</time></trkpt><trkpt lat="39.502571592307426" lon="8.483423572051016"><ele>117.0</ele><time>2026-04-27T14:52:06.027Z</time></trkpt><trkpt lat="39.502482815344386" lon="8.483442463056052"><ele>117.0</ele><time>2026-04-27T14:52:07.027Z</time></trkpt><trkpt lat="39.50239596166612" lon="8.4834552711854"><ele>117.0</ele><time>2026-04-27T14:52:08.027Z</time></trkpt><trkpt lat="39.50231275860659" lon="8.48347232221374"><ele>117.0</ele><time>2026-04-27T14:52:09.027Z</time></trkpt><trkpt lat="39.50224085852052" lon="8.483490354862868"><ele>117.0</ele><time>2026-04-27T14:52:10.027Z</time></trkpt><trkpt lat="39.502162029165845" lon="8.483525392746666"><ele>117.0</ele><time>2026-04-27T14:52:11.027Z</time></trkpt><trkpt lat="39.50208554636605" lon="8.483565694868265"><ele>117.0</ele><time>2026-04-27T14:52:12.027Z</time></trkpt><trkpt lat="39.502000424570255" lon="8.483583488087099"><ele>116.5</ele><time>2026-04-27T14:52:13.027Z</time></trkpt><trkpt lat="39.501915622168546" lon="8.483584668405493"><ele>116.0</ele><time>2026-04-27T14:52:14.027Z</time></trkpt><trkpt lat="39.501830032339996" lon="8.483571751358141"><ele>115.5</ele><time>2026-04-27T14:52:15.027Z</time></trkpt><trkpt lat="39.501745591231135" lon="8.483571087012795"><ele>115.0</ele><time>2026-04-27T14:52:16.027Z</time></trkpt><trkpt lat="39.50166925984595" lon="8.483554974058322"><ele>114.5</ele><time>2026-04-27T14:52:17.027Z</time></trkpt><trkpt lat="39.50160244739652" lon="8.483525263598702"><ele>114.0</ele><time>2026-04-27T14:52:18.027Z</time></trkpt><trkpt lat="39.50150633828807" lon="8.483464827756338"><ele>114.0</ele><time>2026-04-27T14:52:20.027Z</time></trkpt><trkpt lat="39.50144575262524" lon="8.483415726277789"><ele>114.0</ele><time>2026-04-27T14:52:21.027Z</time></trkpt><trkpt lat="39.50136452421722" lon="8.483354064949596"><ele>114.0</ele><time>2026-04-27T14:52:22.027Z</time></trkpt><trkpt lat="39.5012868204942" lon="8.48328530689128"><ele>114.0</ele><time>2026-04-27T14:52:23.027Z</time></trkpt><trkpt lat="39.50120397773747" lon="8.483226918526752"><ele>114.0</ele><time>2026-04-27T14:52:24.027Z</time></trkpt><trkpt lat="39.5010958003703" lon="8.483182928787581"><ele>113.4</ele><time>2026-04-27T14:52:25.027Z</time></trkpt><trkpt lat="39.50099573769275" lon="8.483126607663692"><ele>112.80000000000001</ele><time>2026-04-27T14:52:26.027Z</time></trkpt><trkpt lat="39.50088811316787" lon="8.48307063553788"><ele>112.19999999999999</ele><time>2026-04-27T14:52:27.027Z</time></trkpt><trkpt lat="39.50079079012122" lon="8.483009961517807"><ele>111.6</ele><time>2026-04-27T14:52:28.027Z</time></trkpt><trkpt lat="39.50069851142634" lon="8.482944003504196"><ele>111.0</ele><time>2026-04-27T14:52:29.027Z</time></trkpt><trkpt lat="39.50061954456273" lon="8.482881270724231"><ele>111.0</ele><time>2026-04-27T14:52:30.027Z</time></trkpt><trkpt lat="39.500503780303674" lon="8.482796424244285"><ele>111.0</ele><time>2026-04-27T14:52:32.027Z</time></trkpt><trkpt lat="39.50044418635888" lon="8.482756182653095"><ele>111.0</ele><time>2026-04-27T14:52:33.027Z</time></trkpt><trkpt lat="39.500358455262344" lon="8.482726276239038"><ele>111.0</ele><time>2026-04-27T14:52:34.028Z</time></trkpt><trkpt lat="39.50027347628972" lon="8.482697029099533"><ele>111.0</ele><time>2026-04-27T14:52:35.028Z</time></trkpt><trkpt lat="39.50020210286897" lon="8.482684031431816"><ele>111.0</ele><time>2026-04-27T14:52:36.028Z</time></trkpt><trkpt lat="39.50007526256017" lon="8.482646815354734"><ele>112.33333333333333</ele><time>2026-04-27T14:52:38.028Z</time></trkpt><trkpt lat="39.50001389023728" lon="8.482618481710452"><ele>113.66666666666666</ele><time>2026-04-27T14:52:39.028Z</time></trkpt><trkpt lat="39.499888398255266" lon="8.482574782362267"><ele>115.0</ele><time>2026-04-27T14:52:41.028Z</time></trkpt><trkpt lat="39.49981803974885" lon="8.482540719434871"><ele>116.33333333333333</ele><time>2026-04-27T14:52:42.028Z</time></trkpt><trkpt lat="39.499739760659246" lon="8.482513856491378"><ele>117.66666666666666</ele><time>2026-04-27T14:52:43.028Z</time></trkpt><trkpt lat="39.49965382898252" lon="8.482501240491457"><ele>119.0</ele><time>2026-04-27T14:52:44.028Z</time></trkpt><trkpt lat="39.499567608065945" lon="8.482473693528133"><ele>121.80000000000001</ele><time>2026-04-27T14:52:45.028Z</time></trkpt><trkpt lat="39.49947466172995" lon="8.48243904216323"><ele>124.60000000000001</ele><time>2026-04-27T14:52:46.028Z</time></trkpt><trkpt lat="39.49938426954991" lon="8.482385839248312"><ele>127.4</ele><time>2026-04-27T14:52:47.028Z</time></trkpt><trkpt lat="39.49929739140894" lon="8.482378435770872"><ele>130.20000000000002</ele><time>2026-04-27T14:52:48.028Z</time></trkpt><trkpt lat="39.499214042404866" lon="8.482336745454818"><ele>133.0</ele><time>2026-04-27T14:52:49.028Z</time></trkpt><trkpt lat="39.49913156523917" lon="8.482299575191432"><ele>133.0</ele><time>2026-04-27T14:52:50.028Z</time></trkpt><trkpt lat="39.49904936789676" lon="8.482256579197111"><ele>133.0</ele><time>2026-04-27T14:52:51.028Z</time></trkpt><trkpt lat="39.498979147902936" lon="8.482205856017874"><ele>133.0</ele><time>2026-04-27T14:52:52.028Z</time></trkpt><trkpt lat="39.498912096062035" lon="8.482156273602627"><ele>133.0</ele><time>2026-04-27T14:52:53.028Z</time></trkpt><trkpt lat="39.498841628250155" lon="8.482111850543639"><ele>133.0</ele><time>2026-04-27T14:52:54.028Z</time></trkpt><trkpt lat="39.498756812004636" lon="8.482055687681964"><ele>133.0</ele><time>2026-04-27T14:52:55.028Z</time></trkpt><trkpt lat="39.49867886876112" lon="8.481989831479163"><ele>131.33333333333334</ele><time>2026-04-27T14:52:56.028Z</time></trkpt><trkpt lat="39.49861373820396" lon="8.481924233798807"><ele>129.66666666666669</ele><time>2026-04-27T14:52:57.027Z</time></trkpt><trkpt lat="39.49856049508129" lon="8.481849821528739"><ele>128.0</ele><time>2026-04-27T14:52:58.027Z</time></trkpt><trkpt lat="39.49848657005942" lon="8.481814857217795"><ele>126.33333333333334</ele><time>2026-04-27T14:52:59.027Z</time></trkpt><trkpt lat="39.49840833052339" lon="8.481798606499884"><ele>124.66666666666667</ele><time>2026-04-27T14:53:00.027Z</time></trkpt><trkpt lat="39.498340393858655" lon="8.48179886674817"><ele>123.0</ele><time>2026-04-27T14:53:01.027Z</time></trkpt><trkpt lat="39.49823864024465" lon="8.481877119349406"><ele>123.0</ele><time>2026-04-27T14:53:03.027Z</time></trkpt><trkpt lat="39.49819005266224" lon="8.482006936410176"><ele>123.00000000000001</ele><time>2026-04-27T14:53:05.027Z</time></trkpt><trkpt lat="39.49813389657848" lon="8.482143116148938"><ele>123.00000000000001</ele><time>2026-04-27T14:53:07.026Z</time></trkpt><trkpt lat="39.498073020771606" lon="8.48227035326185"><ele>123.0</ele><time>2026-04-27T14:53:09.027Z</time></trkpt><trkpt lat="39.49802464967035" lon="8.482348897990674"><ele>123.0</ele><time>2026-04-27T14:53:10.027Z</time></trkpt><trkpt lat="39.49795677405244" lon="8.482379801496144"><ele>124.0</ele><time>2026-04-27T14:53:11.027Z</time></trkpt><trkpt lat="39.49787263735429" lon="8.482454128764774"><ele>125.0</ele><time>2026-04-27T14:53:13.027Z</time></trkpt><trkpt lat="39.49781082938661" lon="8.482480302323351"><ele>126.0</ele><time>2026-04-27T14:53:15.027Z</time></trkpt><trkpt lat="39.49775737413182" lon="8.482540927902042"><ele>127.0</ele><time>2026-04-27T14:53:43.028Z</time></trkpt><trkpt lat="39.4977291090455" lon="8.482644648083145"><ele>128.0</ele><time>2026-04-27T14:54:27.029Z</time></trkpt><trkpt lat="39.49771220085619" lon="8.482753595216167"><ele>129.0</ele><time>2026-04-27T14:54:29.029Z</time></trkpt><trkpt lat="39.49769326135261" lon="8.482871033908484"><ele>130.4</ele><time>2026-04-27T14:54:31.029Z</time></trkpt><trkpt lat="39.497674550832414" lon="8.483017176549678"><ele>131.8</ele><time>2026-04-27T14:54:33.029Z</time></trkpt><trkpt lat="39.49767337468308" lon="8.483126053493768"><ele>133.2</ele><time>2026-04-27T14:54:35.029Z</time></trkpt><trkpt lat="39.497686707128274" lon="8.4832069918305"><ele>134.6</ele><time>2026-04-27T14:54:36.029Z</time></trkpt><trkpt lat="39.49773189833421" lon="8.48333483608681"><ele>136.0</ele><time>2026-04-27T14:54:38.029Z</time></trkpt><trkpt lat="39.497795054619786" lon="8.483479741239318"><ele>136.0</ele><time>2026-04-27T14:54:40.029Z</time></trkpt><trkpt lat="39.49783478772437" lon="8.483562519309972"><ele>136.0</ele><time>2026-04-27T14:54:41.029Z</time></trkpt><trkpt lat="39.497886525324716" lon="8.48363716357711"><ele>136.0</ele><time>2026-04-27T14:54:42.029Z</time></trkpt><trkpt lat="39.4979269888154" lon="8.48371992208819"><ele>136.0</ele><time>2026-04-27T14:54:43.029Z</time></trkpt><trkpt lat="39.49797509408891" lon="8.483799616388392"><ele>136.0</ele><time>2026-04-27T14:54:44.029Z</time></trkpt><trkpt lat="39.49801935165983" lon="8.483873718076417"><ele>136.0</ele><time>2026-04-27T14:54:45.029Z</time></trkpt><trkpt lat="39.498064392445855" lon="8.483948411180931"><ele>136.5</ele><time>2026-04-27T14:54:46.029Z</time></trkpt><trkpt lat="39.49808851550721" lon="8.484030892485682"><ele>137.0</ele><time>2026-04-27T14:54:47.029Z</time></trkpt><trkpt lat="39.498120508411766" lon="8.484104038197723"><ele>137.5</ele><time>2026-04-27T14:54:48.029Z</time></trkpt><trkpt lat="39.49815088119514" lon="8.484176413143835"><ele>138.0</ele><time>2026-04-27T14:54:49.029Z</time></trkpt><trkpt lat="39.498193167630795" lon="8.484302865300638"><ele>138.5</ele><time>2026-04-27T14:54:51.029Z</time></trkpt><trkpt lat="39.498221207563525" lon="8.484471071005151"><ele>139.0</ele><time>2026-04-27T14:54:53.029Z</time></trkpt><trkpt lat="39.49823710648186" lon="8.484638329099083"><ele>139.66666666666669</ele><time>2026-04-27T14:54:55.029Z</time></trkpt><trkpt lat="39.498243537053106" lon="8.484738571499163"><ele>140.33333333333334</ele><time>2026-04-27T14:54:56.029Z</time></trkpt><trkpt lat="39.498249112382595" lon="8.484831596839928"><ele>141.0</ele><time>2026-04-27T14:54:57.029Z</time></trkpt><trkpt lat="39.49825192960966" lon="8.484934234201202"><ele>141.66666666666666</ele><time>2026-04-27T14:54:58.029Z</time></trkpt><trkpt lat="39.498254173565535" lon="8.485034783932111"><ele>142.33333333333331</ele><time>2026-04-27T14:54:59.029Z</time></trkpt><trkpt lat="39.498260803108636" lon="8.485147239026324"><ele>143.0</ele><time>2026-04-27T14:55:00.029Z</time></trkpt><trkpt lat="39.49823787948607" lon="8.48528786591947"><ele>143.0</ele><time>2026-04-27T14:55:02.029Z</time></trkpt><trkpt lat="39.49824605893218" lon="8.4854149314233"><ele>143.0</ele><time>2026-04-27T14:55:04.027Z</time></trkpt><trkpt lat="39.4982785107626" lon="8.485494170525138"><ele>143.0</ele><time>2026-04-27T14:55:05.027Z</time></trkpt><trkpt lat="39.49834381333552" lon="8.485553838943378"><ele>143.0</ele><time>2026-04-27T14:55:06.027Z</time></trkpt><trkpt lat="39.498371450312945" lon="8.485661287430174"><ele>143.0</ele><time>2026-04-27T14:55:08.028Z</time></trkpt><trkpt lat="39.49841990061012" lon="8.485774828045074"><ele>143.0</ele><time>2026-04-27T14:55:10.028Z</time></trkpt><trkpt lat="39.49849335277649" lon="8.485882624310914"><ele>143.0</ele><time>2026-04-27T14:55:11.028Z</time></trkpt><trkpt lat="39.49855324288057" lon="8.48595089546445"><ele>143.0</ele><time>2026-04-27T14:55:12.027Z</time></trkpt><trkpt lat="39.49867051666748" lon="8.48606387884437"><ele>143.0</ele><time>2026-04-27T14:55:13.028Z</time></trkpt><trkpt lat="39.498699118469936" lon="8.486193480830247"><ele>143.0</ele><time>2026-04-27T14:55:14.028Z</time></trkpt><trkpt lat="39.49868554970694" lon="8.486289398895085"><ele>143.0</ele><time>2026-04-27T14:55:15.027Z</time></trkpt><trkpt lat="39.49867292013346" lon="8.486378677608656"><ele>145.0</ele><time>2026-04-27T14:55:16.028Z</time></trkpt><trkpt lat="39.49865957469695" lon="8.486473016974136"><ele>147.0</ele><time>2026-04-27T14:55:17.028Z</time></trkpt><trkpt lat="39.498674842210036" lon="8.486631081596538"><ele>149.0</ele><time>2026-04-27T14:55:19.028Z</time></trkpt><trkpt lat="39.498687208091994" lon="8.48671893506566"><ele>151.0</ele><time>2026-04-27T14:55:20.028Z</time></trkpt><trkpt lat="39.498696271736996" lon="8.486803287824165"><ele>153.0</ele><time>2026-04-27T14:55:21.028Z</time></trkpt><trkpt lat="39.498713251691065" lon="8.4869057087422"><ele>155.0</ele><time>2026-04-27T14:55:22.028Z</time></trkpt><trkpt lat="39.49873358559027" lon="8.48700043731157"><ele>155.0</ele><time>2026-04-27T14:55:23.028Z</time></trkpt><trkpt lat="39.49873393331753" lon="8.487085743126995"><ele>155.0</ele><time>2026-04-27T14:55:24.028Z</time></trkpt><trkpt lat="39.4987276541423" lon="8.487169031352975"><ele>155.0</ele><time>2026-04-27T14:55:25.028Z</time></trkpt><trkpt lat="39.498697609254734" lon="8.48733362182608"><ele>155.0</ele><time>2026-04-27T14:55:27.028Z</time></trkpt><trkpt lat="39.498693044858385" lon="8.487478805456895"><ele>155.0</ele><time>2026-04-27T14:55:29.028Z</time></trkpt><trkpt lat="39.49867889392789" lon="8.487558508235736"><ele>155.0</ele><time>2026-04-27T14:55:30.029Z</time></trkpt><trkpt lat="39.49866431876637" lon="8.487657454523621"><ele>156.14285714285714</ele><time>2026-04-27T14:55:31.029Z</time></trkpt><trkpt lat="39.49862871774762" lon="8.487740853988685"><ele>157.28571428571428</ele><time>2026-04-27T14:55:32.029Z</time></trkpt><trkpt lat="39.49858320260777" lon="8.487811317774813"><ele>158.42857142857144</ele><time>2026-04-27T14:55:33.029Z</time></trkpt><trkpt lat="39.49853824638771" lon="8.487881521712291"><ele>159.57142857142856</ele><time>2026-04-27T14:55:34.029Z</time></trkpt><trkpt lat="39.4984958289055" lon="8.487972155465462"><ele>160.7142857142857</ele><time>2026-04-27T14:55:35.029Z</time></trkpt><trkpt lat="39.49843888242123" lon="8.4880332250469"><ele>161.85714285714286</ele><time>2026-04-27T14:55:36.029Z</time></trkpt><trkpt lat="39.49839855601528" lon="8.488105810514732"><ele>163.0</ele><time>2026-04-27T14:55:37.029Z</time></trkpt><trkpt lat="39.49835820661142" lon="8.488184258479393"><ele>163.0</ele><time>2026-04-27T14:55:38.029Z</time></trkpt><trkpt lat="39.498320238743766" lon="8.488263332118434"><ele>163.0</ele><time>2026-04-27T14:55:39.029Z</time></trkpt><trkpt lat="39.49829771983186" lon="8.488340927021937"><ele>163.0</ele><time>2026-04-27T14:55:40.029Z</time></trkpt><trkpt lat="39.498250650056384" lon="8.488471983607015"><ele>163.0</ele><time>2026-04-27T14:55:42.029Z</time></trkpt><trkpt lat="39.49822201076835" lon="8.488545278256472"><ele>163.0</ele><time>2026-04-27T14:55:43.029Z</time></trkpt><trkpt lat="39.4981897964011" lon="8.488628626609021"><ele>163.0</ele><time>2026-04-27T14:55:44.029Z</time></trkpt><trkpt lat="39.49814196648962" lon="8.488704599328688"><ele>162.66666666666669</ele><time>2026-04-27T14:55:45.029Z</time></trkpt><trkpt lat="39.498084115087295" lon="8.488832643853526"><ele>162.33333333333334</ele><time>2026-04-27T14:55:47.029Z</time></trkpt><trkpt lat="39.49804416709683" lon="8.488919800730176"><ele>162.0</ele><time>2026-04-27T14:55:48.029Z</time></trkpt><trkpt lat="39.49800547743256" lon="8.48900421223066"><ele>161.66666666666666</ele><time>2026-04-27T14:55:49.029Z</time></trkpt><trkpt lat="39.49796814453801" lon="8.48908592765304"><ele>161.33333333333331</ele><time>2026-04-27T14:55:50.029Z</time></trkpt><trkpt lat="39.49792851948239" lon="8.489176250758081"><ele>161.0</ele><time>2026-04-27T14:55:51.029Z</time></trkpt><trkpt lat="39.49789044309416" lon="8.489263043745183"><ele>163.66666666666666</ele><time>2026-04-27T14:55:52.029Z</time></trkpt><trkpt lat="39.49785881660089" lon="8.489335134571643"><ele>166.33333333333331</ele><time>2026-04-27T14:55:53.029Z</time></trkpt><trkpt lat="39.49779837806496" lon="8.48946018633226"><ele>169.0</ele><time>2026-04-27T14:55:55.029Z</time></trkpt><trkpt lat="39.49772077854633" lon="8.48960227181969"><ele>171.66666666666666</ele><time>2026-04-27T14:55:57.029Z</time></trkpt><trkpt lat="39.49767749262459" lon="8.489674426507515"><ele>174.33333333333334</ele><time>2026-04-27T14:55:58.029Z</time></trkpt><trkpt lat="39.49764582511468" lon="8.489748912229846"><ele>177.0</ele><time>2026-04-27T14:55:59.029Z</time></trkpt><trkpt lat="39.49759486949456" lon="8.489799194141423"><ele>177.0</ele><time>2026-04-27T14:56:00.029Z</time></trkpt><trkpt lat="39.497577557579795" lon="8.489898713453313"><ele>177.0</ele><time>2026-04-27T14:56:02.029Z</time></trkpt><trkpt lat="39.49757902351332" lon="8.490045347310984"><ele>177.0</ele><time>2026-04-27T14:56:04.029Z</time></trkpt><trkpt lat="39.49756029210055" lon="8.49012585733864"><ele>177.0</ele><time>2026-04-27T14:56:05.029Z</time></trkpt><trkpt lat="39.49752278274662" lon="8.490263497634636"><ele>177.0</ele><time>2026-04-27T14:56:07.029Z</time></trkpt><trkpt lat="39.497441344207765" lon="8.490376551417961"><ele>175.39999999999998</ele><time>2026-04-27T14:56:09.029Z</time></trkpt><trkpt lat="39.497338289065304" lon="8.490464263328553"><ele>173.79999999999998</ele><time>2026-04-27T14:56:11.029Z</time></trkpt><trkpt lat="39.497276908571145" lon="8.490490097689078"><ele>172.2</ele><time>2026-04-27T14:56:12.029Z</time></trkpt><trkpt lat="39.49716876695523" lon="8.490546580773666"><ele>170.6</ele><time>2026-04-27T14:56:14.029Z</time></trkpt><trkpt lat="39.4971160041007" lon="8.49066547221777"><ele>169.0</ele><time>2026-04-27T14:56:16.029Z</time></trkpt><trkpt lat="39.497100049657064" lon="8.490767029720095"><ele>173.5</ele><time>2026-04-27T14:56:17.029Z</time></trkpt><trkpt lat="39.4970807822108" lon="8.490846727232517"><ele>178.0</ele><time>2026-04-27T14:56:18.029Z</time></trkpt><trkpt lat="39.49699445447197" lon="8.490964317717635"><ele>182.5</ele><time>2026-04-27T14:56:20.029Z</time></trkpt><trkpt lat="39.49694115349024" lon="8.491019939867803"><ele>187.0</ele><time>2026-04-27T14:56:21.029Z</time></trkpt><trkpt lat="39.49688327807702" lon="8.491085783622665"><ele>191.49999999999997</ele><time>2026-04-27T14:56:22.029Z</time></trkpt><trkpt lat="39.496830350554376" lon="8.491131978476007"><ele>196.0</ele><time>2026-04-27T14:56:23.029Z</time></trkpt><trkpt lat="39.496722816689655" lon="8.491208898601485"><ele>193.99999999999997</ele><time>2026-04-27T14:56:25.029Z</time></trkpt><trkpt lat="39.49666047054195" lon="8.4912711837777"><ele>192.0</ele><time>2026-04-27T14:56:26.03Z</time></trkpt><trkpt lat="39.49659929497021" lon="8.491337472483076"><ele>190.0</ele><time>2026-04-27T14:56:27.03Z</time></trkpt><trkpt lat="39.496558403804045" lon="8.491429615310555"><ele>188.0</ele><time>2026-04-27T14:56:28.03Z</time></trkpt><trkpt lat="39.49652006853857" lon="8.491503424677038"><ele>186.0</ele><time>2026-04-27T14:56:29.03Z</time></trkpt><trkpt lat="39.496413388066856" lon="8.491558705693658"><ele>184.0</ele><time>2026-04-27T14:56:31.03Z</time></trkpt><trkpt lat="39.49631284041335" lon="8.49164738661194"><ele>184.0</ele><time>2026-04-27T14:56:33.03Z</time></trkpt><trkpt lat="39.49628627703649" lon="8.49173265153365"><ele>184.0</ele><time>2026-04-27T14:56:34.03Z</time></trkpt><trkpt lat="39.496262161052066" lon="8.491808216249922"><ele>184.0</ele><time>2026-04-27T14:56:35.03Z</time></trkpt><trkpt lat="39.49621950724954" lon="8.49191461441106"><ele>184.0</ele><time>2026-04-27T14:56:37.03Z</time></trkpt><trkpt lat="39.496152393169105" lon="8.491984859481027"><ele>184.0</ele><time>2026-04-27T14:56:39.03Z</time></trkpt><trkpt lat="39.496035653045276" lon="8.49197993062498"><ele>184.0</ele><time>2026-04-27T14:56:41.03Z</time></trkpt><trkpt lat="39.495967048834636" lon="8.492024654573791"><ele>187.39999999999998</ele><time>2026-04-27T14:56:43.03Z</time></trkpt><trkpt lat="39.49598839380264" lon="8.492184773414076"><ele>190.8</ele><time>2026-04-27T14:56:45.03Z</time></trkpt><trkpt lat="39.49601902671878" lon="8.49232926093302"><ele>194.2</ele><time>2026-04-27T14:56:47.03Z</time></trkpt><trkpt lat="39.49594353270347" lon="8.492462005205715"><ele>197.60000000000002</ele><time>2026-04-27T14:56:49.03Z</time></trkpt><trkpt lat="39.4958924692805" lon="8.492512854603975"><ele>201.0</ele><time>2026-04-27T14:56:50.03Z</time></trkpt><trkpt lat="39.49583701785246" lon="8.492573657495313"><ele>201.0</ele><time>2026-04-27T14:56:51.03Z</time></trkpt><trkpt lat="39.495787269870064" lon="8.492626843562196"><ele>201.0</ele><time>2026-04-27T14:56:52.03Z</time></trkpt><trkpt lat="39.495690303589974" lon="8.492685034518495"><ele>201.0</ele><time>2026-04-27T14:56:54.03Z</time></trkpt><trkpt lat="39.49556814662916" lon="8.492737112686248"><ele>201.0</ele><time>2026-04-27T14:56:56.03Z</time></trkpt><trkpt lat="39.49545000619862" lon="8.492793729351497"><ele>201.0</ele><time>2026-04-27T14:56:58.03Z</time></trkpt><trkpt lat="39.49541370095421" lon="8.492894236829018"><ele>200.8</ele><time>2026-04-27T14:57:00.03Z</time></trkpt><trkpt lat="39.495469144024995" lon="8.4930028757472"><ele>200.60000000000002</ele><time>2026-04-27T14:57:02.03Z</time></trkpt><trkpt lat="39.495541314581565" lon="8.4930977641167"><ele>200.4</ele><time>2026-04-27T14:57:04.03Z</time></trkpt><trkpt lat="39.49558838995687" lon="8.49318646652504"><ele>200.2</ele><time>2026-04-27T14:57:07.03Z</time></trkpt><trkpt lat="39.49554035984635" lon="8.493265086065525"><ele>200.0</ele><time>2026-04-27T14:57:09.028Z</time></trkpt><trkpt lat="39.49548332808132" lon="8.493380840591517"><ele>200.00000000000003</ele><time>2026-04-27T14:57:11.028Z</time></trkpt><trkpt lat="39.49545598516115" lon="8.493483521548695"><ele>200.0</ele><time>2026-04-27T14:57:12.028Z</time></trkpt><trkpt lat="39.49543954327957" lon="8.493581273770335"><ele>200.0</ele><time>2026-04-27T14:57:13.029Z</time></trkpt><trkpt lat="39.4954237003717" lon="8.493670132079956"><ele>200.0</ele><time>2026-04-27T14:57:14.029Z</time></trkpt><trkpt lat="39.49539277679596" lon="8.493745816570991"><ele>200.00000000000003</ele><time>2026-04-27T14:57:15.028Z</time></trkpt><trkpt lat="39.49532720522802" lon="8.493851515669549"><ele>200.0</ele><time>2026-04-27T14:57:17.029Z</time></trkpt><trkpt lat="39.495279926557025" lon="8.493915912744706"><ele>204.8</ele><time>2026-04-27T14:57:19.028Z</time></trkpt><trkpt lat="39.495241991562644" lon="8.49401578108613"><ele>209.6</ele><time>2026-04-27T14:57:21.029Z</time></trkpt><trkpt lat="39.495155495486536" lon="8.494094477655173"><ele>214.39999999999998</ele><time>2026-04-27T14:57:23.028Z</time></trkpt><trkpt lat="39.495066779568454" lon="8.494107484777011"><ele>219.2</ele><time>2026-04-27T14:57:25.028Z</time></trkpt><trkpt lat="39.495009402250076" lon="8.494157624669995"><ele>224.0</ele><time>2026-04-27T14:57:27.028Z</time></trkpt><trkpt lat="39.49500113320798" lon="8.494294973732778"><ele>224.00000000000003</ele><time>2026-04-27T14:57:29.028Z</time></trkpt><trkpt lat="39.49498423195007" lon="8.494374282650707"><ele>224.0</ele><time>2026-04-27T14:57:30.028Z</time></trkpt><trkpt lat="39.49498802673728" lon="8.49451334393721"><ele>224.0</ele><time>2026-04-27T14:57:32.028Z</time></trkpt><trkpt lat="39.494953557116524" lon="8.494647829919732"><ele>224.0</ele><time>2026-04-27T14:57:34.028Z</time></trkpt><trkpt lat="39.49493677749422" lon="8.494731367578307"><ele>224.00000000000003</ele><time>2026-04-27T14:57:35.028Z</time></trkpt><trkpt lat="39.49492386338801" lon="8.494817762228083"><ele>224.0</ele><time>2026-04-27T14:57:36.028Z</time></trkpt><trkpt lat="39.4949065325353" lon="8.494974385366401"><ele>224.39999999999998</ele><time>2026-04-27T14:57:38.028Z</time></trkpt><trkpt lat="39.49491344461085" lon="8.495064545911037"><ele>224.79999999999998</ele><time>2026-04-27T14:57:39.028Z</time></trkpt><trkpt lat="39.494930799838485" lon="8.495232532604504"><ele>225.20000000000002</ele><time>2026-04-27T14:57:41.028Z</time></trkpt><trkpt lat="39.49495089650521" lon="8.495393988531838"><ele>225.60000000000002</ele><time>2026-04-27T14:57:43.029Z</time></trkpt><trkpt lat="39.49496725863705" lon="8.495485813576053"><ele>226.0</ele><time>2026-04-27T14:57:44.029Z</time></trkpt><trkpt lat="39.4950070442466" lon="8.495628835789242"><ele>227.83333333333331</ele><time>2026-04-27T14:57:46.029Z</time></trkpt><trkpt lat="39.4950597243936" lon="8.495770292428606"><ele>229.66666666666666</ele><time>2026-04-27T14:57:48.029Z</time></trkpt><trkpt lat="39.49511707051808" lon="8.495899823539228"><ele>231.5</ele><time>2026-04-27T14:57:50.029Z</time></trkpt><trkpt lat="39.495159145959065" lon="8.495974672738345"><ele>233.33333333333331</ele><time>2026-04-27T14:57:51.029Z</time></trkpt><trkpt lat="39.4951914277136" lon="8.496051371368758"><ele>235.16666666666666</ele><time>2026-04-27T14:57:52.029Z</time></trkpt><trkpt lat="39.49521657863088" lon="8.496128578434488"><ele>237.0</ele><time>2026-04-27T14:57:53.029Z</time></trkpt><trkpt lat="39.49523241344582" lon="8.496214296968887"><ele>239.2</ele><time>2026-04-27T14:57:54.029Z</time></trkpt><trkpt lat="39.495230071281526" lon="8.496372548158043"><ele>241.39999999999998</ele><time>2026-04-27T14:57:56.029Z</time></trkpt><trkpt lat="39.49521842230621" lon="8.496518994322692"><ele>243.60000000000002</ele><time>2026-04-27T14:57:58.029Z</time></trkpt><trkpt lat="39.49518768528509" lon="8.496636437694606"><ele>245.8</ele><time>2026-04-27T14:58:00.029Z</time></trkpt><trkpt lat="39.49512705510887" lon="8.49666488367886"><ele>248.0</ele><time>2026-04-27T14:58:02.029Z</time></trkpt><trkpt lat="39.49505233946482" lon="8.496591572685698"><ele>248.00000000000003</ele><time>2026-04-27T14:58:04.029Z</time></trkpt><trkpt lat="39.49503982889598" lon="8.496442596118802"><ele>248.0</ele><time>2026-04-27T14:58:06.029Z</time></trkpt><trkpt lat="39.495044692658695" lon="8.496351585949906"><ele>248.0</ele><time>2026-04-27T14:58:07.029Z</time></trkpt><trkpt lat="39.49502577549124" lon="8.496269455374888"><ele>248.0</ele><time>2026-04-27T14:58:08.029Z</time></trkpt><trkpt lat="39.494998701934364" lon="8.49618775207317"><ele>248.00000000000003</ele><time>2026-04-27T14:58:09.029Z</time></trkpt><trkpt lat="39.49495228405134" lon="8.496101306298247"><ele>248.0</ele><time>2026-04-27T14:58:10.029Z</time></trkpt><trkpt lat="39.49486107192127" lon="8.496045312423275"><ele>248.00000000000003</ele><time>2026-04-27T14:58:12.029Z</time></trkpt><trkpt lat="39.494815727273384" lon="8.496138326989263"><ele>248.0</ele><time>2026-04-27T14:58:14.029Z</time></trkpt><trkpt lat="39.49486523500109" lon="8.49626054975045"><ele>248.0</ele><time>2026-04-27T14:58:16.029Z</time></trkpt><trkpt lat="39.49490991531375" lon="8.496401676497966"><ele>248.0</ele><time>2026-04-27T14:58:18.029Z</time></trkpt><trkpt lat="39.49491557197194" lon="8.496485647216906"><ele>248.00000000000003</ele><time>2026-04-27T14:58:19.029Z</time></trkpt><trkpt lat="39.49490263988542" lon="8.49657991454717"><ele>248.0</ele><time>2026-04-27T14:58:20.029Z</time></trkpt><trkpt lat="39.494886930731575" lon="8.496665406477726"><ele>248.00000000000003</ele><time>2026-04-27T14:58:21.029Z</time></trkpt><trkpt lat="39.49488673513546" lon="8.496754884039149"><ele>248.0</ele><time>2026-04-27T14:58:22.029Z</time></trkpt><trkpt lat="39.49490132717196" lon="8.496847036080908"><ele>248.0</ele><time>2026-04-27T14:58:23.029Z</time></trkpt><trkpt lat="39.49491555111764" lon="8.496939662355517"><ele>248.0</ele><time>2026-04-27T14:58:24.029Z</time></trkpt><trkpt lat="39.494920785388" lon="8.497024636321305"><ele>248.00000000000003</ele><time>2026-04-27T14:58:25.029Z</time></trkpt><trkpt lat="39.49493668012157" lon="8.49717532402101"><ele>248.0</ele><time>2026-04-27T14:58:27.029Z</time></trkpt><trkpt lat="39.49494068871006" lon="8.497269860738127"><ele>250.0</ele><time>2026-04-27T14:58:28.029Z</time></trkpt><trkpt lat="39.49494292429386" lon="8.497354805444251"><ele>252.0</ele><time>2026-04-27T14:58:29.029Z</time></trkpt><trkpt lat="39.49489196721614" lon="8.497498170333445"><ele>254.0</ele><time>2026-04-27T14:58:31.029Z</time></trkpt><trkpt lat="39.494842140959264" lon="8.497556865553083"><ele>256.0</ele><time>2026-04-27T14:58:32.029Z</time></trkpt><trkpt lat="39.49476790764589" lon="8.497665183441523"><ele>258.0</ele><time>2026-04-27T14:58:34.029Z</time></trkpt><trkpt lat="39.49469661281198" lon="8.497755216094614"><ele>258.0</ele><time>2026-04-27T14:58:36.03Z</time></trkpt><trkpt lat="39.49464403755647" lon="8.497882611408526"><ele>258.0</ele><time>2026-04-27T14:58:38.03Z</time></trkpt><trkpt lat="39.49460427581483" lon="8.497958826351121"><ele>258.0</ele><time>2026-04-27T14:58:39.03Z</time></trkpt><trkpt lat="39.49455589087944" lon="8.498026945744835"><ele>258.0</ele><time>2026-04-27T14:58:40.03Z</time></trkpt><trkpt lat="39.49450906601933" lon="8.498148853334937"><ele>258.0</ele><time>2026-04-27T14:58:42.03Z</time></trkpt><trkpt lat="39.49453253683138" lon="8.49823965404779"><ele>258.0</ele><time>2026-04-27T14:58:43.03Z</time></trkpt><trkpt lat="39.494629577976816" lon="8.498314664639746"><ele>261.6</ele><time>2026-04-27T14:58:45.03Z</time></trkpt><trkpt lat="39.494729691966945" lon="8.4982509093633"><ele>265.20000000000005</ele><time>2026-04-27T14:58:47.03Z</time></trkpt><trkpt lat="39.494800052353035" lon="8.498207489101992"><ele>268.8</ele><time>2026-04-27T14:58:48.03Z</time></trkpt><trkpt lat="39.49493067859372" lon="8.49818731540389"><ele>272.40000000000003</ele><time>2026-04-27T14:58:50.03Z</time></trkpt><trkpt lat="39.49500534219725" lon="8.498175784575807"><ele>276.0</ele><time>2026-04-27T14:58:51.03Z</time></trkpt><trkpt lat="39.49510688376608" lon="8.498109875009668"><ele>276.0</ele><time>2026-04-27T14:58:53.03Z</time></trkpt><trkpt lat="39.495158319486414" lon="8.498037372737913"><ele>276.0</ele><time>2026-04-27T14:58:54.03Z</time></trkpt><trkpt lat="39.495197311432555" lon="8.497961581633591"><ele>276.0</ele><time>2026-04-27T14:58:55.03Z</time></trkpt><trkpt lat="39.495247015750515" lon="8.497908642860228"><ele>276.0</ele><time>2026-04-27T14:58:56.03Z</time></trkpt><trkpt lat="39.49530819361176" lon="8.497853062271325"><ele>276.0</ele><time>2026-04-27T14:58:57.03Z</time></trkpt><trkpt lat="39.49536814793304" lon="8.497814705051692"><ele>276.0</ele><time>2026-04-27T14:58:58.03Z</time></trkpt><trkpt lat="39.49542916318899" lon="8.497778433178688"><ele>276.0</ele><time>2026-04-27T14:58:59.03Z</time></trkpt><trkpt lat="39.49548525451724" lon="8.49772219478134"><ele>277.0</ele><time>2026-04-27T14:59:00.03Z</time></trkpt><trkpt lat="39.495525727314565" lon="8.497651530640915"><ele>278.0</ele><time>2026-04-27T14:59:01.03Z</time></trkpt><trkpt lat="39.49558593354059" lon="8.497520917649554"><ele>279.0</ele><time>2026-04-27T14:59:03.03Z</time></trkpt><trkpt lat="39.495634515765026" lon="8.497461651782965"><ele>280.0</ele><time>2026-04-27T14:59:04.03Z</time></trkpt><trkpt lat="39.49569177203302" lon="8.49740958966667"><ele>281.0</ele><time>2026-04-27T14:59:05.03Z</time></trkpt><trkpt lat="39.49572721555803" lon="8.49733441813357"><ele>282.0</ele><time>2026-04-27T14:59:06.03Z</time></trkpt><trkpt lat="39.495776245209925" lon="8.497244169526724"><ele>282.0</ele><time>2026-04-27T14:59:08.03Z</time></trkpt><trkpt lat="39.495833688616486" lon="8.497313064056497"><ele>282.0</ele><time>2026-04-27T14:59:10.03Z</time></trkpt><trkpt lat="39.49579456783623" lon="8.497411266205326"><ele>282.0</ele><time>2026-04-27T14:59:12.03Z</time></trkpt><trkpt lat="39.49570893274168" lon="8.497512112867549"><ele>282.0</ele><time>2026-04-27T14:59:14.03Z</time></trkpt><trkpt lat="39.49563642551763" lon="8.497605163333025"><ele>282.0</ele><time>2026-04-27T14:59:16.029Z</time></trkpt><trkpt lat="39.49561191694731" lon="8.497682022028513"><ele>282.0</ele><time>2026-04-27T14:59:17.029Z</time></trkpt><trkpt lat="39.49559266625034" lon="8.4977790742614"><ele>282.0</ele><time>2026-04-27T14:59:18.029Z</time></trkpt><trkpt lat="39.4955640569094" lon="8.497873345380304"><ele>282.0</ele><time>2026-04-27T14:59:19.029Z</time></trkpt><trkpt lat="39.49551711205843" lon="8.497943253127834"><ele>282.0</ele><time>2026-04-27T14:59:20.029Z</time></trkpt><trkpt lat="39.49546499550375" lon="8.498002439359345"><ele>282.0</ele><time>2026-04-27T14:59:21.029Z</time></trkpt><trkpt lat="39.49541518902695" lon="8.498071544630918"><ele>282.0</ele><time>2026-04-27T14:59:22.029Z</time></trkpt><trkpt lat="39.4953733531726" lon="8.498152778133543"><ele>282.0</ele><time>2026-04-27T14:59:23.029Z</time></trkpt><trkpt lat="39.495308500945626" lon="8.49830365658084"><ele>281.0</ele><time>2026-04-27T14:59:25.029Z</time></trkpt><trkpt lat="39.49526987636021" lon="8.498374535525901"><ele>280.0</ele><time>2026-04-27T14:59:26.029Z</time></trkpt><trkpt lat="39.49523424351942" lon="8.49845101063487"><ele>279.0</ele><time>2026-04-27T14:59:27.029Z</time></trkpt><trkpt lat="39.495217704347034" lon="8.498544634898819"><ele>278.0</ele><time>2026-04-27T14:59:28.029Z</time></trkpt><trkpt lat="39.495172758001516" lon="8.498667708777505"><ele>277.0</ele><time>2026-04-27T14:59:30.029Z</time></trkpt><trkpt lat="39.49504695528588" lon="8.498697351649403"><ele>276.0</ele><time>2026-04-27T14:59:32.029Z</time></trkpt><trkpt lat="39.494973736210774" lon="8.498705355719522"><ele>276.0</ele><time>2026-04-27T14:59:33.03Z</time></trkpt><trkpt lat="39.49485749154545" lon="8.498721952798798"><ele>276.0</ele><time>2026-04-27T14:59:35.03Z</time></trkpt><trkpt lat="39.49476707099967" lon="8.498778489314857"><ele>276.0</ele><time>2026-04-27T14:59:37.03Z</time></trkpt><trkpt lat="39.494717269830986" lon="8.498836457626942"><ele>276.0</ele><time>2026-04-27T14:59:38.03Z</time></trkpt><trkpt lat="39.494680283731995" lon="8.498904091000687"><ele>276.0</ele><time>2026-04-27T14:59:39.03Z</time></trkpt><trkpt lat="39.49458464436373" lon="8.499013578426307"><ele>278.7142857142857</ele><time>2026-04-27T14:59:41.03Z</time></trkpt><trkpt lat="39.49452237064005" lon="8.49906339206805"><ele>281.42857142857144</ele><time>2026-04-27T14:59:42.03Z</time></trkpt><trkpt lat="39.49445567925025" lon="8.499103093895426"><ele>284.14285714285717</ele><time>2026-04-27T14:59:43.03Z</time></trkpt><trkpt lat="39.49438919596751" lon="8.499148963025544"><ele>286.8571428571429</ele><time>2026-04-27T14:59:44.03Z</time></trkpt><trkpt lat="39.49432032989267" lon="8.499185848533903"><ele>289.57142857142856</ele><time>2026-04-27T14:59:45.03Z</time></trkpt><trkpt lat="39.494260599259235" lon="8.499226149369603"><ele>292.28571428571433</ele><time>2026-04-27T14:59:46.03Z</time></trkpt><trkpt lat="39.49419869859234" lon="8.499260853967902"><ele>295.0</ele><time>2026-04-27T14:59:47.03Z</time></trkpt><trkpt lat="39.49413252755295" lon="8.499273000111314"><ele>295.00000000000006</ele><time>2026-04-27T14:59:48.03Z</time></trkpt><trkpt lat="39.49405589610154" lon="8.499279387294903"><ele>295.0</ele><time>2026-04-27T14:59:49.03Z</time></trkpt><trkpt lat="39.493989017848335" lon="8.499267272908003"><ele>295.0</ele><time>2026-04-27T14:59:50.03Z</time></trkpt><trkpt lat="39.493921999476484" lon="8.499238148508185"><ele>295.0</ele><time>2026-04-27T14:59:51.03Z</time></trkpt><trkpt lat="39.493870733965274" lon="8.499189828382283"><ele>295.0</ele><time>2026-04-27T14:59:52.03Z</time></trkpt><trkpt lat="39.49383104694137" lon="8.49911820370401"><ele>295.00000000000006</ele><time>2026-04-27T14:59:53.03Z</time></trkpt><trkpt lat="39.493807872163664" lon="8.499031673936322"><ele>295.0</ele><time>2026-04-27T14:59:54.03Z</time></trkpt><trkpt lat="39.49380249006156" lon="8.498923030776323"><ele>295.0</ele><time>2026-04-27T14:59:55.03Z</time></trkpt><trkpt lat="39.49382035890675" lon="8.498812401698595"><ele>295.0</ele><time>2026-04-27T14:59:56.03Z</time></trkpt><trkpt lat="39.49384884536899" lon="8.498706793381604"><ele>295.0</ele><time>2026-04-27T14:59:57.03Z</time></trkpt><trkpt lat="39.493881412440054" lon="8.49860969913359"><ele>295.0</ele><time>2026-04-27T14:59:58.03Z</time></trkpt><trkpt lat="39.49389673927263" lon="8.49852392160594"><ele>295.0</ele><time>2026-04-27T14:59:59.03Z</time></trkpt><trkpt lat="39.49389545310703" lon="8.4984353053188"><ele>295.0</ele><time>2026-04-27T15:00:00.03Z</time></trkpt><trkpt lat="39.49388040894302" lon="8.498333225178504"><ele>293.8333333333333</ele><time>2026-04-27T15:00:01.03Z</time></trkpt><trkpt lat="39.49388667154209" lon="8.49822995678118"><ele>292.66666666666663</ele><time>2026-04-27T15:00:02.03Z</time></trkpt><trkpt lat="39.493889862901526" lon="8.498111610216228"><ele>291.5</ele><time>2026-04-27T15:00:03.03Z</time></trkpt><trkpt lat="39.49391001606454" lon="8.498000035633929"><ele>290.3333333333333</ele><time>2026-04-27T15:00:04.03Z</time></trkpt><trkpt lat="39.49392804975125" lon="8.497884113951237"><ele>289.1666666666667</ele><time>2026-04-27T15:00:05.03Z</time></trkpt><trkpt lat="39.49394194911699" lon="8.497777064625762"><ele>288.0</ele><time>2026-04-27T15:00:06.03Z</time></trkpt><trkpt lat="39.493947028819235" lon="8.497682402307623"><ele>288.0</ele><time>2026-04-27T15:00:07.03Z</time></trkpt><trkpt lat="39.4939507666058" lon="8.497586546106474"><ele>288.0</ele><time>2026-04-27T15:00:08.03Z</time></trkpt><trkpt lat="39.49396709328063" lon="8.497491550927737"><ele>288.0</ele><time>2026-04-27T15:00:09.03Z</time></trkpt><trkpt lat="39.49401381067243" lon="8.497398266768975"><ele>288.0</ele><time>2026-04-27T15:00:10.03Z</time></trkpt><trkpt lat="39.49403397988566" lon="8.497299915884106"><ele>288.0</ele><time>2026-04-27T15:00:11.03Z</time></trkpt><trkpt lat="39.49403508629421" lon="8.49719967741869"><ele>288.0</ele><time>2026-04-27T15:00:12.03Z</time></trkpt><trkpt lat="39.49402541632124" lon="8.497109234407349"><ele>286.5</ele><time>2026-04-27T15:00:13.03Z</time></trkpt><trkpt lat="39.493993242655655" lon="8.497035808554193"><ele>285.0</ele><time>2026-04-27T15:00:14.03Z</time></trkpt><trkpt lat="39.49395586074488" lon="8.496953237182195"><ele>283.5</ele><time>2026-04-27T15:00:15.03Z</time></trkpt><trkpt lat="39.49392649800446" lon="8.496872180712549"><ele>282.0</ele><time>2026-04-27T15:00:16.03Z</time></trkpt><trkpt lat="39.49386458760046" lon="8.496748120853521"><ele>280.5</ele><time>2026-04-27T15:00:18.03Z</time></trkpt><trkpt lat="39.4938010544243" lon="8.496709667811265"><ele>279.0</ele><time>2026-04-27T15:00:19.03Z</time></trkpt><trkpt lat="39.49372800362355" lon="8.496687814218095"><ele>281.99999999999994</ele><time>2026-04-27T15:00:20.03Z</time></trkpt><trkpt lat="39.493660371198935" lon="8.496676126026514"><ele>285.0</ele><time>2026-04-27T15:00:21.03Z</time></trkpt><trkpt lat="39.49359311974466" lon="8.49666708519749"><ele>288.0</ele><time>2026-04-27T15:00:22.03Z</time></trkpt><trkpt lat="39.493520352838004" lon="8.496649901396546"><ele>291.0</ele><time>2026-04-27T15:00:23.03Z</time></trkpt><trkpt lat="39.49344748465062" lon="8.49661498585046"><ele>294.0</ele><time>2026-04-27T15:00:24.03Z</time></trkpt><trkpt lat="39.49338345049845" lon="8.496587686898593"><ele>296.99999999999994</ele><time>2026-04-27T15:00:25.03Z</time></trkpt><trkpt lat="39.49330539348729" lon="8.496574684488357"><ele>300.0</ele><time>2026-04-27T15:00:26.03Z</time></trkpt><trkpt lat="39.49323418970777" lon="8.496586955751297"><ele>300.0</ele><time>2026-04-27T15:00:27.031Z</time></trkpt><trkpt lat="39.49315857812445" lon="8.496624473836581"><ele>300.0</ele><time>2026-04-27T15:00:28.031Z</time></trkpt><trkpt lat="39.4930935828695" lon="8.496677191531758"><ele>300.0</ele><time>2026-04-27T15:00:29.031Z</time></trkpt><trkpt lat="39.493042494020315" lon="8.496748762660838"><ele>300.0</ele><time>2026-04-27T15:00:30.031Z</time></trkpt><trkpt lat="39.493005386804384" lon="8.496829904748111"><ele>300.0</ele><time>2026-04-27T15:00:31.031Z</time></trkpt><trkpt lat="39.492912143389724" lon="8.496946203332358"><ele>300.0</ele><time>2026-04-27T15:00:33.031Z</time></trkpt><trkpt lat="39.49285040892752" lon="8.496966741225375"><ele>303.2</ele><time>2026-04-27T15:00:34.031Z</time></trkpt><trkpt lat="39.492741536764505" lon="8.496942384026916"><ele>306.4</ele><time>2026-04-27T15:00:36.031Z</time></trkpt><trkpt lat="39.49263869438525" lon="8.496873673752086"><ele>309.6</ele><time>2026-04-27T15:00:38.031Z</time></trkpt><trkpt lat="39.492578112133735" lon="8.496741182700278"><ele>312.8</ele><time>2026-04-27T15:00:40.031Z</time></trkpt><trkpt lat="39.492562220577646" lon="8.496623308265818"><ele>316.0</ele><time>2026-04-27T15:00:42.031Z</time></trkpt><trkpt lat="39.492555907373266" lon="8.496476276890263"><ele>316.0</ele><time>2026-04-27T15:00:44.031Z</time></trkpt><trkpt lat="39.49253352782728" lon="8.496326543352453"><ele>316.0</ele><time>2026-04-27T15:00:46.031Z</time></trkpt><trkpt lat="39.492493882103794" lon="8.496186165288465"><ele>316.0</ele><time>2026-04-27T15:00:48.031Z</time></trkpt><trkpt lat="39.492476416916425" lon="8.49606577940086"><ele>316.0</ele><time>2026-04-27T15:00:50.031Z</time></trkpt><trkpt lat="39.49240452591229" lon="8.496037222962544"><ele>316.0</ele><time>2026-04-27T15:00:53.031Z</time></trkpt><trkpt lat="39.49239416083651" lon="8.496156835865147"><ele>316.0</ele><time>2026-04-27T15:00:55.031Z</time></trkpt><trkpt lat="39.49242397159715" lon="8.496243886127097"><ele>316.0</ele><time>2026-04-27T15:00:56.031Z</time></trkpt><trkpt lat="39.492438695499054" lon="8.496390441162783"><ele>316.0</ele><time>2026-04-27T15:00:58.031Z</time></trkpt><trkpt lat="39.492415506085294" lon="8.496471451690073"><ele>316.0</ele><time>2026-04-27T15:00:59.031Z</time></trkpt><trkpt lat="39.492391824558986" lon="8.496568557509205"><ele>316.0</ele><time>2026-04-27T15:01:00.031Z</time></trkpt><trkpt lat="39.49235619590392" lon="8.496636434654441"><ele>316.0</ele><time>2026-04-27T15:01:01.031Z</time></trkpt><trkpt lat="39.49235042467243" lon="8.496763547732229"><ele>316.0</ele><time>2026-04-27T15:01:03.031Z</time></trkpt><trkpt lat="39.49236237129559" lon="8.496847654592104"><ele>316.0</ele><time>2026-04-27T15:01:05.031Z</time></trkpt><trkpt lat="39.492328272520844" lon="8.496995003814748"><ele>316.0</ele><time>2026-04-27T15:01:07.031Z</time></trkpt><trkpt lat="39.4923220425529" lon="8.49712759975953"><ele>316.0</ele><time>2026-04-27T15:01:09.031Z</time></trkpt><trkpt lat="39.49233456596352" lon="8.497210763940679"><ele>316.0</ele><time>2026-04-27T15:01:10.031Z</time></trkpt><trkpt lat="39.492388659164774" lon="8.497341750484404"><ele>319.20000000000005</ele><time>2026-04-27T15:01:12.031Z</time></trkpt><trkpt lat="39.4924739883608" lon="8.497415802577965"><ele>322.40000000000003</ele><time>2026-04-27T15:01:14.031Z</time></trkpt><trkpt lat="39.49254497275919" lon="8.497517327908211"><ele>325.6</ele><time>2026-04-27T15:01:16.031Z</time></trkpt><trkpt lat="39.4926385028566" lon="8.497605040173717"><ele>328.8</ele><time>2026-04-27T15:01:18.031Z</time></trkpt><trkpt lat="39.49275149708968" lon="8.497636274907704"><ele>332.0</ele><time>2026-04-27T15:01:20.032Z</time></trkpt><trkpt lat="39.492818704396235" lon="8.49763429594778"><ele>329.20000000000005</ele><time>2026-04-27T15:01:21.03Z</time></trkpt><trkpt lat="39.49294133290031" lon="8.497606338207584"><ele>326.40000000000003</ele><time>2026-04-27T15:01:23.029Z</time></trkpt><trkpt lat="39.49304432340209" lon="8.497596565791527"><ele>323.6</ele><time>2026-04-27T15:01:25.029Z</time></trkpt><trkpt lat="39.49312957040441" lon="8.497630411837797"><ele>320.8</ele><time>2026-04-27T15:01:27.03Z</time></trkpt><trkpt lat="39.49312640233544" lon="8.497738061542016"><ele>318.0</ele><time>2026-04-27T15:01:29.029Z</time></trkpt><trkpt lat="39.49304475955808" lon="8.497769235950013"><ele>318.0</ele><time>2026-04-27T15:01:31.03Z</time></trkpt><trkpt lat="39.492960150049655" lon="8.497716599307978"><ele>318.0</ele><time>2026-04-27T15:01:33.029Z</time></trkpt><trkpt lat="39.492861691031436" lon="8.497737432148513"><ele>318.0</ele><time>2026-04-27T15:01:35.029Z</time></trkpt><trkpt lat="39.49279254013932" lon="8.497754069681209"><ele>318.0</ele><time>2026-04-27T15:01:36.029Z</time></trkpt><trkpt lat="39.492681042938905" lon="8.497810621656239"><ele>318.0</ele><time>2026-04-27T15:01:38.029Z</time></trkpt><trkpt lat="39.49259009501772" lon="8.497836124562454"><ele>320.8</ele><time>2026-04-27T15:01:40.029Z</time></trkpt><trkpt lat="39.492483215404896" lon="8.497798653659936"><ele>323.6</ele><time>2026-04-27T15:01:42.029Z</time></trkpt><trkpt lat="39.492377156313154" lon="8.497778306467659"><ele>326.40000000000003</ele><time>2026-04-27T15:01:44.029Z</time></trkpt><trkpt lat="39.49227755689765" lon="8.49777366984587"><ele>329.20000000000005</ele><time>2026-04-27T15:01:46.029Z</time></trkpt><trkpt lat="39.49219644009014" lon="8.497703508220209"><ele>332.0</ele><time>2026-04-27T15:01:48.029Z</time></trkpt><trkpt lat="39.4921246750263" lon="8.497642186175527"><ele>332.0</ele><time>2026-04-27T15:01:50.03Z</time></trkpt><trkpt lat="39.49203299948966" lon="8.49758017954603"><ele>332.0</ele><time>2026-04-27T15:01:52.03Z</time></trkpt><trkpt lat="39.49195086758493" lon="8.497499408439316"><ele>332.0</ele><time>2026-04-27T15:01:54.03Z</time></trkpt><trkpt lat="39.49190615691862" lon="8.497364892175037"><ele>332.0</ele><time>2026-04-27T15:01:56.03Z</time></trkpt><trkpt lat="39.49191742967737" lon="8.497208616482682"><ele>332.0</ele><time>2026-04-27T15:01:58.03Z</time></trkpt><trkpt lat="39.491892285739844" lon="8.497078962106439"><ele>332.0</ele><time>2026-04-27T15:02:00.03Z</time></trkpt><trkpt lat="39.491806189095044" lon="8.49708203290215"><ele>332.0</ele><time>2026-04-27T15:02:02.03Z</time></trkpt><trkpt lat="39.49179766912307" lon="8.497183901079934"><ele>332.0</ele><time>2026-04-27T15:02:04.03Z</time></trkpt><trkpt lat="39.49182799783369" lon="8.497338898772677"><ele>332.0</ele><time>2026-04-27T15:02:06.03Z</time></trkpt><trkpt lat="39.49183223930316" lon="8.49742169825172"><ele>332.0</ele><time>2026-04-27T15:02:07.03Z</time></trkpt><trkpt lat="39.4918099343494" lon="8.497556937997983"><ele>335.40000000000003</ele><time>2026-04-27T15:02:09.03Z</time></trkpt><trkpt lat="39.491850310928854" lon="8.497697064466957"><ele>338.8</ele><time>2026-04-27T15:02:11.03Z</time></trkpt><trkpt lat="39.49194337171695" lon="8.497807634567334"><ele>342.2</ele><time>2026-04-27T15:02:13.03Z</time></trkpt><trkpt lat="39.491992059899154" lon="8.497873191401506"><ele>345.6</ele><time>2026-04-27T15:02:14.03Z</time></trkpt><trkpt lat="39.4920400654513" lon="8.497939046099463"><ele>349.0</ele><time>2026-04-27T15:02:15.03Z</time></trkpt><trkpt lat="39.492087537447034" lon="8.49800519053575"><ele>349.5</ele><time>2026-04-27T15:02:16.03Z</time></trkpt><trkpt lat="39.4921437389482" lon="8.498074666106701"><ele>350.0</ele><time>2026-04-27T15:02:17.03Z</time></trkpt><trkpt lat="39.49220334285054" lon="8.498124514494721"><ele>350.5</ele><time>2026-04-27T15:02:18.03Z</time></trkpt><trkpt lat="39.492270436856366" lon="8.498173429509032"><ele>351.0</ele><time>2026-04-27T15:02:19.03Z</time></trkpt><trkpt lat="39.49234457029825" lon="8.498209164811646"><ele>351.5</ele><time>2026-04-27T15:02:20.03Z</time></trkpt><trkpt lat="39.49240980741101" lon="8.498245038977087"><ele>352.0</ele><time>2026-04-27T15:02:21.03Z</time></trkpt><trkpt lat="39.49247810253205" lon="8.498361318239569"><ele>352.0</ele><time>2026-04-27T15:02:23.03Z</time></trkpt><trkpt lat="39.492492272261835" lon="8.498510149106485"><ele>352.0</ele><time>2026-04-27T15:02:25.03Z</time></trkpt><trkpt lat="39.492444069245195" lon="8.498656650305083"><ele>352.0</ele><time>2026-04-27T15:02:27.03Z</time></trkpt><trkpt lat="39.492406499584035" lon="8.498778555465954"><ele>352.0</ele><time>2026-04-27T15:02:29.03Z</time></trkpt><trkpt lat="39.49234978459781" lon="8.498908079744336"><ele>351.5</ele><time>2026-04-27T15:02:31.03Z</time></trkpt><trkpt lat="39.49227421068266" lon="8.499028061362887"><ele>351.0</ele><time>2026-04-27T15:02:33.03Z</time></trkpt><trkpt lat="39.49217294254359" lon="8.499101874780202"><ele>350.5</ele><time>2026-04-27T15:02:35.03Z</time></trkpt><trkpt lat="39.49205899424458" lon="8.49915804992808"><ele>350.0</ele><time>2026-04-27T15:02:37.03Z</time></trkpt><trkpt lat="39.491957505967235" lon="8.499250153444864"><ele>355.8</ele><time>2026-04-27T15:02:39.03Z</time></trkpt><trkpt lat="39.491859035545154" lon="8.499311288838522"><ele>361.6</ele><time>2026-04-27T15:02:41.03Z</time></trkpt><trkpt lat="39.491783399221816" lon="8.499371169348429"><ele>367.4</ele><time>2026-04-27T15:02:43.031Z</time></trkpt><trkpt lat="39.4917328680481" lon="8.499421916031496"><ele>373.2</ele><time>2026-04-27T15:02:44.031Z</time></trkpt><trkpt lat="39.49169057630891" lon="8.499489145950061"><ele>379.0</ele><time>2026-04-27T15:02:45.031Z</time></trkpt><trkpt lat="39.49158373940233" lon="8.499573788284161"><ele>377.79999999999995</ele><time>2026-04-27T15:02:47.031Z</time></trkpt><trkpt lat="39.49149643500101" lon="8.499672361137783"><ele>376.59999999999997</ele><time>2026-04-27T15:02:49.031Z</time></trkpt><trkpt lat="39.4914481040608" lon="8.499828026540918"><ele>375.4</ele><time>2026-04-27T15:02:51.031Z</time></trkpt><trkpt lat="39.491426949467815" lon="8.499914575470736"><ele>374.2</ele><time>2026-04-27T15:02:52.031Z</time></trkpt><trkpt lat="39.49135825413954" lon="8.500032647873288"><ele>373.0</ele><time>2026-04-27T15:02:54.031Z</time></trkpt><trkpt lat="39.491307080593785" lon="8.500149274439911"><ele>373.0</ele><time>2026-04-27T15:02:56.031Z</time></trkpt><trkpt lat="39.49128284628144" lon="8.500309586743828"><ele>373.0</ele><time>2026-04-27T15:02:58.031Z</time></trkpt><trkpt lat="39.49130535308922" lon="8.500393074385862"><ele>373.0</ele><time>2026-04-27T15:02:59.031Z</time></trkpt><trkpt lat="39.49132771355598" lon="8.500476582262822"><ele>373.0</ele><time>2026-04-27T15:03:00.031Z</time></trkpt><trkpt lat="39.49137947181926" lon="8.500544976838325"><ele>373.0</ele><time>2026-04-27T15:03:01.031Z</time></trkpt><trkpt lat="39.49142909659029" lon="8.500598980508268"><ele>373.0</ele><time>2026-04-27T15:03:02.031Z</time></trkpt><trkpt lat="39.49148709248103" lon="8.500646409122522"><ele>375.14285714285717</ele><time>2026-04-27T15:03:03.031Z</time></trkpt><trkpt lat="39.49155124814719" lon="8.500672722841474"><ele>377.28571428571433</ele><time>2026-04-27T15:03:04.031Z</time></trkpt><trkpt lat="39.4916230555935" lon="8.500705802229602"><ele>379.42857142857144</ele><time>2026-04-27T15:03:05.031Z</time></trkpt><trkpt lat="39.49168069822943" lon="8.500758644100234"><ele>381.57142857142856</ele><time>2026-04-27T15:03:06.031Z</time></trkpt><trkpt lat="39.49173819668469" lon="8.500821507277388"><ele>383.7142857142857</ele><time>2026-04-27T15:03:07.031Z</time></trkpt><trkpt lat="39.49180461262562" lon="8.500880628021072"><ele>385.85714285714283</ele><time>2026-04-27T15:03:08.031Z</time></trkpt><trkpt lat="39.4918641367147" lon="8.500908552850472"><ele>388.0</ele><time>2026-04-27T15:03:09.031Z</time></trkpt><trkpt lat="39.49196917759574" lon="8.500903485640498"><ele>388.00000000000006</ele><time>2026-04-27T15:03:11.031Z</time></trkpt><trkpt lat="39.49193012830286" lon="8.500989459824108"><ele>388.0</ele><time>2026-04-27T15:04:56.031Z</time></trkpt><trkpt lat="39.49184613708044" lon="8.50101191172724"><ele>388.0</ele><time>2026-04-27T15:04:58.031Z</time></trkpt><trkpt lat="39.491756001577784" lon="8.500974909019924"><ele>388.0</ele><time>2026-04-27T15:05:00.031Z</time></trkpt><trkpt lat="39.49168940148808" lon="8.500943317408453"><ele>388.00000000000006</ele><time>2026-04-27T15:05:01.031Z</time></trkpt><trkpt lat="39.49162854391427" lon="8.50090914741866"><ele>388.0</ele><time>2026-04-27T15:05:02.031Z</time></trkpt><trkpt lat="39.491569085014554" lon="8.500875570824585"><ele>388.00000000000006</ele><time>2026-04-27T15:05:03.031Z</time></trkpt><trkpt lat="39.49151036024346" lon="8.500845952016949"><ele>388.0</ele><time>2026-04-27T15:05:04.031Z</time></trkpt><trkpt lat="39.49144390561002" lon="8.500822180714465"><ele>388.0</ele><time>2026-04-27T15:05:05.031Z</time></trkpt><trkpt lat="39.491366751595734" lon="8.500799795195112"><ele>388.0</ele><time>2026-04-27T15:05:06.031Z</time></trkpt><trkpt lat="39.49128336527324" lon="8.500776399792183"><ele>388.00000000000006</ele><time>2026-04-27T15:05:07.031Z</time></trkpt><trkpt lat="39.49121471845297" lon="8.50073059298118"><ele>388.0</ele><time>2026-04-27T15:05:08.031Z</time></trkpt><trkpt lat="39.49116981615895" lon="8.500640578298336"><ele>389.83333333333337</ele><time>2026-04-27T15:05:09.031Z</time></trkpt><trkpt lat="39.49112969115103" lon="8.500558045247788"><ele>391.6666666666667</ele><time>2026-04-27T15:05:10.032Z</time></trkpt><trkpt lat="39.49107943017786" lon="8.500478836915354"><ele>393.5</ele><time>2026-04-27T15:05:11.032Z</time></trkpt><trkpt lat="39.49105870024117" lon="8.500376330878165"><ele>395.33333333333337</ele><time>2026-04-27T15:05:12.032Z</time></trkpt><trkpt lat="39.491037076967665" lon="8.500286312619599"><ele>397.1666666666667</ele><time>2026-04-27T15:05:13.032Z</time></trkpt><trkpt lat="39.49103329061267" lon="8.500191464146093"><ele>399.0</ele><time>2026-04-27T15:05:14.032Z</time></trkpt><trkpt lat="39.49104155751709" lon="8.500097656601376"><ele>399.0</ele><time>2026-04-27T15:05:15.032Z</time></trkpt><trkpt lat="39.49106002549729" lon="8.499922877531503"><ele>399.0</ele><time>2026-04-27T15:05:17.032Z</time></trkpt><trkpt lat="39.491083983164174" lon="8.49982921253169"><ele>399.0</ele><time>2026-04-27T15:05:18.032Z</time></trkpt><trkpt lat="39.49112168356415" lon="8.499752752542438"><ele>399.0</ele><time>2026-04-27T15:05:19.032Z</time></trkpt><trkpt lat="39.49115899882907" lon="8.499650121813879"><ele>399.0</ele><time>2026-04-27T15:05:20.032Z</time></trkpt><trkpt lat="39.49118561743176" lon="8.499572761636514"><ele>399.0</ele><time>2026-04-27T15:05:21.032Z</time></trkpt><trkpt lat="39.491194460084024" lon="8.499466129638666"><ele>399.0</ele><time>2026-04-27T15:05:23.032Z</time></trkpt><trkpt lat="39.49114074206072" lon="8.499410950878412"><ele>399.0</ele><time>2026-04-27T15:05:26.032Z</time></trkpt><trkpt lat="39.4911081557967" lon="8.499485688810744"><ele>399.0</ele><time>2026-04-27T15:05:30.032Z</time></trkpt><trkpt lat="39.49111594005958" lon="8.49958626059102"><ele>399.0</ele><time>2026-04-27T15:05:32.032Z</time></trkpt><trkpt lat="39.491106694741106" lon="8.499674808970918"><ele>399.0</ele><time>2026-04-27T15:05:34.031Z</time></trkpt><trkpt lat="39.4910775255895" lon="8.499763390902064"><ele>399.0</ele><time>2026-04-27T15:05:39.031Z</time></trkpt><trkpt lat="39.49102857673972" lon="8.499841092164703"><ele>399.0</ele><time>2026-04-27T15:06:06.032Z</time></trkpt><trkpt lat="39.49108497065521" lon="8.499734210911774"><ele>399.0</ele><time>2026-04-27T15:06:16.032Z</time></trkpt><trkpt lat="39.49111825022313" lon="8.499585270027687"><ele>399.0</ele><time>2026-04-27T15:06:18.032Z</time></trkpt><trkpt lat="39.49114169248386" lon="8.49947006518921"><ele>399.0</ele><time>2026-04-27T15:06:20.032Z</time></trkpt><trkpt lat="39.4911687379824" lon="8.499394285003946"><ele>399.0</ele><time>2026-04-27T15:06:22.032Z</time></trkpt><trkpt lat="39.491109670698975" lon="8.499457801310562"><ele>399.0</ele><time>2026-04-27T15:06:27.032Z</time></trkpt><trkpt lat="39.49108619013615" lon="8.499571103847563"><ele>399.0</ele><time>2026-04-27T15:06:29.032Z</time></trkpt><trkpt lat="39.49105958711434" lon="8.499666534884213"><ele>399.0</ele><time>2026-04-27T15:06:31.032Z</time></trkpt><trkpt lat="39.49100676212648" lon="8.499735205250063"><ele>399.0</ele><time>2026-04-27T15:06:33.032Z</time></trkpt><trkpt lat="39.49095193554972" lon="8.499790874891461"><ele>399.0</ele><time>2026-04-27T15:06:36.032Z</time></trkpt><trkpt lat="39.490868090852246" lon="8.499866016558718"><ele>399.0</ele><time>2026-04-27T15:06:39.032Z</time></trkpt><trkpt lat="39.49080159865729" lon="8.499949417860407"><ele>399.0</ele><time>2026-04-27T15:06:41.032Z</time></trkpt><trkpt lat="39.49074347351161" lon="8.499996450378214"><ele>399.0</ele><time>2026-04-27T15:06:44.032Z</time></trkpt><trkpt lat="39.49070486323265" lon="8.500071562952662"><ele>399.0</ele><time>2026-04-27T15:06:47.033Z</time></trkpt><trkpt lat="39.49067047357368" lon="8.50014783408843"><ele>399.0</ele><time>2026-04-27T15:06:50.033Z</time></trkpt><trkpt lat="39.49062649082441" lon="8.500255582524943"><ele>399.0</ele><time>2026-04-27T15:06:52.033Z</time></trkpt><trkpt lat="39.490573989071095" lon="8.500342479664633"><ele>399.0</ele><time>2026-04-27T15:06:54.033Z</time></trkpt><trkpt lat="39.490540035449484" lon="8.500427771036788"><ele>399.0</ele><time>2026-04-27T15:06:56.033Z</time></trkpt><trkpt lat="39.490498385018945" lon="8.500489443110917"><ele>399.0</ele><time>2026-04-27T15:06:57.033Z</time></trkpt><trkpt lat="39.490429120267095" lon="8.500614078935207"><ele>404.2</ele><time>2026-04-27T15:06:59.033Z</time></trkpt><trkpt lat="39.4903432626175" lon="8.50071765821988"><ele>409.4</ele><time>2026-04-27T15:07:01.033Z</time></trkpt><trkpt lat="39.49028298602888" lon="8.500758685532038"><ele>414.6</ele><time>2026-04-27T15:07:02.033Z</time></trkpt><trkpt lat="39.49017416530786" lon="8.500830181052121"><ele>419.8</ele><time>2026-04-27T15:07:04.033Z</time></trkpt><trkpt lat="39.4900765952946" lon="8.50085184526302"><ele>425.0</ele><time>2026-04-27T15:07:06.033Z</time></trkpt><trkpt lat="39.489990901699464" lon="8.500863367006426"><ele>424.99999999999994</ele><time>2026-04-27T15:07:08.033Z</time></trkpt><trkpt lat="39.48992073069953" lon="8.500878160199463"><ele>425.0</ele><time>2026-04-27T15:07:10.033Z</time></trkpt><trkpt lat="39.48983921997789" lon="8.500938076263393"><ele>425.0</ele><time>2026-04-27T15:07:12.033Z</time></trkpt><trkpt lat="39.48977481617386" lon="8.500992160917624"><ele>425.0</ele><time>2026-04-27T15:07:14.033Z</time></trkpt><trkpt lat="39.48968960706619" lon="8.501049128239785"><ele>424.99999999999994</ele><time>2026-04-27T15:07:16.033Z</time></trkpt><trkpt lat="39.489588671535024" lon="8.501084944279087"><ele>425.0</ele><time>2026-04-27T15:07:18.033Z</time></trkpt><trkpt lat="39.48951000359627" lon="8.501127335041621"><ele>427.8</ele><time>2026-04-27T15:07:20.033Z</time></trkpt><trkpt lat="39.48944334756784" lon="8.501179830708013"><ele>430.6</ele><time>2026-04-27T15:07:22.033Z</time></trkpt><trkpt lat="39.489373221136226" lon="8.50127838868071"><ele>433.4</ele><time>2026-04-27T15:07:24.033Z</time></trkpt><trkpt lat="39.4893045919651" lon="8.501334715816949"><ele>436.2</ele><time>2026-04-27T15:07:26.033Z</time></trkpt><trkpt lat="39.48921231070199" lon="8.501443825930968"><ele>439.0</ele><time>2026-04-27T15:07:28.033Z</time></trkpt><trkpt lat="39.4891660734253" lon="8.501521649429714"><ele>439.0</ele><time>2026-04-27T15:07:30.033Z</time></trkpt><trkpt lat="39.489113389297295" lon="8.501651823596518"><ele>439.0</ele><time>2026-04-27T15:08:43.032Z</time></trkpt><trkpt lat="39.48919071929061" lon="8.501746127566907"><ele>439.0</ele><time>2026-04-27T15:09:25.033Z</time></trkpt><trkpt lat="39.48924976857995" lon="8.501834660842855"><ele>439.0</ele><time>2026-04-27T15:09:27.033Z</time></trkpt><trkpt lat="39.48930520445813" lon="8.501925216339545"><ele>439.0</ele><time>2026-04-27T15:09:29.033Z</time></trkpt><trkpt lat="39.4893608901377" lon="8.502026831359759"><ele>439.6</ele><time>2026-04-27T15:09:31.033Z</time></trkpt><trkpt lat="39.48939704551216" lon="8.50214767004903"><ele>440.2</ele><time>2026-04-27T15:09:33.033Z</time></trkpt><trkpt lat="39.48943300464185" lon="8.50227014743588"><ele>440.80000000000007</ele><time>2026-04-27T15:09:35.033Z</time></trkpt><trkpt lat="39.48948026452162" lon="8.50236880330163"><ele>441.40000000000003</ele><time>2026-04-27T15:09:37.033Z</time></trkpt><trkpt lat="39.489517562972374" lon="8.502456216108264"><ele>442.0</ele><time>2026-04-27T15:09:39.034Z</time></trkpt><trkpt lat="39.489527053013944" lon="8.502582703171765"><ele>442.00000000000006</ele><time>2026-04-27T15:09:42.034Z</time></trkpt><trkpt lat="39.48953614016417" lon="8.502676533318626"><ele>442.0</ele><time>2026-04-27T15:09:44.034Z</time></trkpt><trkpt lat="39.48958737550701" lon="8.502759947510324"><ele>442.0</ele><time>2026-04-27T15:09:46.032Z</time></trkpt><trkpt lat="39.48963624421008" lon="8.502830306745038"><ele>442.0</ele><time>2026-04-27T15:09:48.032Z</time></trkpt><trkpt lat="39.48965749089851" lon="8.502940659563588"><ele>442.00000000000006</ele><time>2026-04-27T15:09:50.032Z</time></trkpt><trkpt lat="39.48967012574876" lon="8.503059741603042"><ele>442.0</ele><time>2026-04-27T15:09:52.032Z</time></trkpt><trkpt lat="39.48969686861617" lon="8.50318939744866"><ele>445.40000000000003</ele><time>2026-04-27T15:09:54.032Z</time></trkpt><trkpt lat="39.48975293302276" lon="8.503312118977064"><ele>448.80000000000007</ele><time>2026-04-27T15:09:56.032Z</time></trkpt><trkpt lat="39.48978516604518" lon="8.503433351358497"><ele>452.2</ele><time>2026-04-27T15:09:58.033Z</time></trkpt><trkpt lat="39.48978868876266" lon="8.503562090573778"><ele>455.6</ele><time>2026-04-27T15:10:00.033Z</time></trkpt><trkpt lat="39.48977446008976" lon="8.503693730357883"><ele>459.0</ele><time>2026-04-27T15:10:02.033Z</time></trkpt><trkpt lat="39.48976047986726" lon="8.503831289925477"><ele>461.75</ele><time>2026-04-27T15:10:04.033Z</time></trkpt><trkpt lat="39.489718136860716" lon="8.503953733641334"><ele>464.5</ele><time>2026-04-27T15:10:06.033Z</time></trkpt><trkpt lat="39.489668344643846" lon="8.504095139522024"><ele>467.25</ele><time>2026-04-27T15:10:08.033Z</time></trkpt><trkpt lat="39.48964136101885" lon="8.504223356880575"><ele>470.0</ele><time>2026-04-27T15:10:10.033Z</time></trkpt><trkpt lat="39.48961089946058" lon="8.504378493142157"><ele>470.0</ele><time>2026-04-27T15:10:12.033Z</time></trkpt><trkpt lat="39.48959224678254" lon="8.504460206759978"><ele>470.0</ele><time>2026-04-27T15:10:13.033Z</time></trkpt><trkpt lat="39.489566331856516" lon="8.504596294815574"><ele>470.0</ele><time>2026-04-27T15:10:15.033Z</time></trkpt><trkpt lat="39.48953546064702" lon="8.504745976207195"><ele>470.0</ele><time>2026-04-27T15:10:17.033Z</time></trkpt><trkpt lat="39.489516839246434" lon="8.50482681216828"><ele>470.0</ele><time>2026-04-27T15:10:18.033Z</time></trkpt><trkpt lat="39.48949394080895" lon="8.50497521401725"><ele>468.25</ele><time>2026-04-27T15:10:20.033Z</time></trkpt><trkpt lat="39.48949560366532" lon="8.505136126354193"><ele>466.5</ele><time>2026-04-27T15:10:22.033Z</time></trkpt><trkpt lat="39.48950136901463" lon="8.505278099470617"><ele>464.75</ele><time>2026-04-27T15:10:24.033Z</time></trkpt><trkpt lat="39.48950679335104" lon="8.505426654067453"><ele>463.0</ele><time>2026-04-27T15:10:26.033Z</time></trkpt><trkpt lat="39.48954092173628" lon="8.505581301854223"><ele>466.0</ele><time>2026-04-27T15:10:28.033Z</time></trkpt><trkpt lat="39.489560461651365" lon="8.505729448239594"><ele>468.99999999999994</ele><time>2026-04-27T15:10:30.033Z</time></trkpt><trkpt lat="39.48955440912838" lon="8.505897896942376"><ele>471.99999999999994</ele><time>2026-04-27T15:10:32.033Z</time></trkpt><trkpt lat="39.489536703725335" lon="8.505981081723187"><ele>475.0</ele><time>2026-04-27T15:10:33.033Z</time></trkpt><trkpt lat="39.48950795914108" lon="8.506063249341203"><ele>478.0</ele><time>2026-04-27T15:10:34.033Z</time></trkpt><trkpt lat="39.48947351535181" lon="8.506148407438376"><ele>478.00000000000006</ele><time>2026-04-27T15:10:35.033Z</time></trkpt><trkpt lat="39.48944837727415" lon="8.506235674503532"><ele>478.0</ele><time>2026-04-27T15:10:36.033Z</time></trkpt><trkpt lat="39.48942395209879" lon="8.50634757081679"><ele>478.0</ele><time>2026-04-27T15:10:37.033Z</time></trkpt><trkpt lat="39.489405363489084" lon="8.506453034699813"><ele>478.0</ele><time>2026-04-27T15:10:38.033Z</time></trkpt><trkpt lat="39.48938081876608" lon="8.506548797842902"><ele>478.00000000000006</ele><time>2026-04-27T15:10:39.034Z</time></trkpt><trkpt lat="39.48936261880398" lon="8.506638316948587"><ele>478.0</ele><time>2026-04-27T15:10:40.034Z</time></trkpt><trkpt lat="39.489346465438125" lon="8.506741438386664"><ele>479.6666666666667</ele><time>2026-04-27T15:10:41.034Z</time></trkpt><trkpt lat="39.48933174513768" lon="8.506841095615556"><ele>481.33333333333337</ele><time>2026-04-27T15:10:42.034Z</time></trkpt><trkpt lat="39.48933918797041" lon="8.506952459614086"><ele>483.0</ele><time>2026-04-27T15:10:43.034Z</time></trkpt><trkpt lat="39.48935038771502" lon="8.507074863049043"><ele>484.66666666666663</ele><time>2026-04-27T15:10:44.034Z</time></trkpt><trkpt lat="39.4893563051525" lon="8.507178242321025"><ele>486.3333333333333</ele><time>2026-04-27T15:10:45.034Z</time></trkpt><trkpt lat="39.489352189082396" lon="8.507290792852027"><ele>488.0</ele><time>2026-04-27T15:10:46.034Z</time></trkpt><trkpt lat="39.48933416294587" lon="8.507393284705168"><ele>489.2</ele><time>2026-04-27T15:10:47.034Z</time></trkpt><trkpt lat="39.489319588535636" lon="8.507505265495347"><ele>490.4</ele><time>2026-04-27T15:10:48.034Z</time></trkpt><trkpt lat="39.48930937084791" lon="8.50762397310774"><ele>491.59999999999997</ele><time>2026-04-27T15:10:49.034Z</time></trkpt><trkpt lat="39.48929521342206" lon="8.507756086679684"><ele>492.79999999999995</ele><time>2026-04-27T15:10:50.034Z</time></trkpt><trkpt lat="39.48928094588541" lon="8.507879488853193"><ele>494.0</ele><time>2026-04-27T15:10:51.034Z</time></trkpt><trkpt lat="39.489269011246094" lon="8.50800954768481"><ele>494.6</ele><time>2026-04-27T15:10:52.034Z</time></trkpt><trkpt lat="39.489263018408714" lon="8.508141329540011"><ele>495.2</ele><time>2026-04-27T15:10:53.031Z</time></trkpt><trkpt lat="39.48925869036673" lon="8.508271378484029"><ele>495.80000000000007</ele><time>2026-04-27T15:10:54.029Z</time></trkpt><trkpt lat="39.48925557633954" lon="8.508401504642855"><ele>496.40000000000003</ele><time>2026-04-27T15:10:55.027Z</time></trkpt><trkpt lat="39.489250631300976" lon="8.508519487162879"><ele>497.0</ele><time>2026-04-27T15:10:56.025Z</time></trkpt><trkpt lat="39.48924691171162" lon="8.508619998192245"><ele>496.99999999999994</ele><time>2026-04-27T15:10:57.023Z</time></trkpt><trkpt lat="39.4892444478019" lon="8.508705302538582"><ele>497.0</ele><time>2026-04-27T15:10:58.021Z</time></trkpt><trkpt lat="39.48922648812414" lon="8.508792586336583"><ele>497.0</ele><time>2026-04-27T15:10:59.019Z</time></trkpt><trkpt lat="39.48918461552759" lon="8.508903683063041"><ele>497.0</ele><time>2026-04-27T15:11:00.018Z</time></trkpt><trkpt lat="39.48915941122321" lon="8.508982191202096"><ele>496.99999999999994</ele><time>2026-04-27T15:11:01.016Z</time></trkpt><trkpt lat="39.48912107098161" lon="8.5090850296857"><ele>497.0</ele><time>2026-04-27T15:11:02.015Z</time></trkpt><trkpt lat="39.48908419872557" lon="8.509215991554113"><ele>497.20000000000005</ele><time>2026-04-27T15:11:03.013Z</time></trkpt><trkpt lat="39.48904248440599" lon="8.50933906094067"><ele>497.40000000000003</ele><time>2026-04-27T15:11:04.012Z</time></trkpt><trkpt lat="39.488998111215736" lon="8.509450630688951"><ele>497.59999999999997</ele><time>2026-04-27T15:11:05.011Z</time></trkpt><trkpt lat="39.488951342389164" lon="8.509557367698402"><ele>497.79999999999995</ele><time>2026-04-27T15:11:06.01Z</time></trkpt><trkpt lat="39.48891446010684" lon="8.509653938858948"><ele>498.0</ele><time>2026-04-27T15:11:07.009Z</time></trkpt><trkpt lat="39.488888863737834" lon="8.50974386233693"><ele>498.5</ele><time>2026-04-27T15:11:08.008Z</time></trkpt><trkpt lat="39.488875290919765" lon="8.509833085923491"><ele>499.0</ele><time>2026-04-27T15:11:09.007Z</time></trkpt><trkpt lat="39.488868809157765" lon="8.509931859194715"><ele>499.5</ele><time>2026-04-27T15:11:10.006Z</time></trkpt><trkpt lat="39.48887484229961" lon="8.510024897236091"><ele>500.0</ele><time>2026-04-27T15:11:11.006Z</time></trkpt><trkpt lat="39.48889443171485" lon="8.51012382958748"><ele>500.5</ele><time>2026-04-27T15:11:12.005Z</time></trkpt><trkpt lat="39.48891136244111" lon="8.510224788099697"><ele>501.0</ele><time>2026-04-27T15:11:13.004Z</time></trkpt><trkpt lat="39.48893416869648" lon="8.510336743070102"><ele>500.0</ele><time>2026-04-27T15:11:14.004Z</time></trkpt><trkpt lat="39.48897133873361" lon="8.510453018060645"><ele>499.0</ele><time>2026-04-27T15:11:15.003Z</time></trkpt><trkpt lat="39.48901740959983" lon="8.510556808997354"><ele>498.0</ele><time>2026-04-27T15:11:16.003Z</time></trkpt><trkpt lat="39.4890706246291" lon="8.510671326732725"><ele>497.0</ele><time>2026-04-27T15:11:17.002Z</time></trkpt><trkpt lat="39.489122825035984" lon="8.510785730573339"><ele>496.0</ele><time>2026-04-27T15:11:18.002Z</time></trkpt><trkpt lat="39.489176936166274" lon="8.510893986605703"><ele>496.00000000000006</ele><time>2026-04-27T15:11:19.001Z</time></trkpt><trkpt lat="39.489224463357665" lon="8.510991271811617"><ele>496.0</ele><time>2026-04-27T15:11:20.001Z</time></trkpt><trkpt lat="39.48927607001142" lon="8.511076832147083"><ele>496.0</ele><time>2026-04-27T15:11:21Z</time></trkpt><trkpt lat="39.48932782593635" lon="8.511165955074476"><ele>496.0</ele><time>2026-04-27T15:11:22Z</time></trkpt><trkpt lat="39.489381993052895" lon="8.511253623917623"><ele>496.00000000000006</ele><time>2026-04-27T15:11:22.999Z</time></trkpt><trkpt lat="39.48943202652987" lon="8.511336699554377"><ele>496.0</ele><time>2026-04-27T15:11:23.999Z</time></trkpt><trkpt lat="39.48948203299732" lon="8.511418737442314"><ele>496.00000000000006</ele><time>2026-04-27T15:11:24.999Z</time></trkpt><trkpt lat="39.48953618273423" lon="8.511493217918833"><ele>496.0</ele><time>2026-04-27T15:11:25.999Z</time></trkpt><trkpt lat="39.4895816128977" lon="8.511571765345545"><ele>496.0</ele><time>2026-04-27T15:11:26.998Z</time></trkpt><trkpt lat="39.48961123688942" lon="8.51165935183006"><ele>496.0</ele><time>2026-04-27T15:11:27.998Z</time></trkpt><trkpt lat="39.48966243044611" lon="8.511766656094451"><ele>496.00000000000006</ele><time>2026-04-27T15:11:28.998Z</time></trkpt><trkpt lat="39.489717559390854" lon="8.51186890970845"><ele>496.0</ele><time>2026-04-27T15:11:29.998Z</time></trkpt><trkpt lat="39.48978476780149" lon="8.51194401366008"><ele>496.00000000000006</ele><time>2026-04-27T15:11:30.997Z</time></trkpt><trkpt lat="39.48986072247668" lon="8.512002249479224"><ele>496.0</ele><time>2026-04-27T15:11:31.997Z</time></trkpt><trkpt lat="39.489933643269175" lon="8.512025278728316"><ele>496.0</ele><time>2026-04-27T15:11:32.997Z</time></trkpt><trkpt lat="39.49000961561478" lon="8.512033210901338"><ele>496.0</ele><time>2026-04-27T15:11:33.997Z</time></trkpt><trkpt lat="39.49009535543997" lon="8.512072101857424"><ele>496.00000000000006</ele><time>2026-04-27T15:11:35.997Z</time></trkpt><trkpt lat="39.490053627761576" lon="8.51218740286539"><ele>496.0</ele><time>2026-04-27T15:11:38.996Z</time></trkpt><trkpt lat="39.48991799915533" lon="8.5121839703146"><ele>494.8571428571429</ele><time>2026-04-27T15:11:40.996Z</time></trkpt><trkpt lat="39.48984060564769" lon="8.512168382861386"><ele>493.7142857142858</ele><time>2026-04-27T15:11:41.996Z</time></trkpt><trkpt lat="39.48976622589775" lon="8.51215303445815"><ele>492.57142857142856</ele><time>2026-04-27T15:11:42.996Z</time></trkpt><trkpt lat="39.48969617928837" lon="8.512126888517697"><ele>491.42857142857144</ele><time>2026-04-27T15:11:43.996Z</time></trkpt><trkpt lat="39.489636240292775" lon="8.5120836219632"><ele>490.2857142857143</ele><time>2026-04-27T15:11:44.996Z</time></trkpt><trkpt lat="39.48958342016218" lon="8.512025746023586"><ele>489.1428571428571</ele><time>2026-04-27T15:11:45.996Z</time></trkpt><trkpt lat="39.48953326358952" lon="8.511963584827637"><ele>487.99999999999994</ele><time>2026-04-27T15:11:46.995Z</time></trkpt><trkpt lat="39.48943716995998" lon="8.511904919022257"><ele>487.99999999999994</ele><time>2026-04-27T15:11:48.995Z</time></trkpt><trkpt lat="39.48934313376925" lon="8.51192874186018"><ele>488.0</ele><time>2026-04-27T15:11:50.993Z</time></trkpt><trkpt lat="39.4892587691079" lon="8.512042833022324"><ele>488.0</ele><time>2026-04-27T15:11:52.993Z</time></trkpt><trkpt lat="39.48923229203876" lon="8.512118035302718"><ele>488.0</ele><time>2026-04-27T15:11:53.993Z</time></trkpt><trkpt lat="39.48919535582456" lon="8.512190129457094"><ele>487.99999999999994</ele><time>2026-04-27T15:11:54.993Z</time></trkpt><trkpt lat="39.489151100305506" lon="8.512264785934596"><ele>488.0</ele><time>2026-04-27T15:11:55.993Z</time></trkpt><trkpt lat="39.48909946648501" lon="8.512332604163076"><ele>486.0</ele><time>2026-04-27T15:11:56.993Z</time></trkpt><trkpt lat="39.48904221683725" lon="8.512385874602817"><ele>483.99999999999994</ele><time>2026-04-27T15:11:57.993Z</time></trkpt><trkpt lat="39.488990873820406" lon="8.512434641642061"><ele>481.99999999999994</ele><time>2026-04-27T15:11:58.993Z</time></trkpt><trkpt lat="39.48889804742602" lon="8.512540864094548"><ele>480.0</ele><time>2026-04-27T15:12:00.993Z</time></trkpt><trkpt lat="39.48885172030198" lon="8.512692657019972"><ele>478.0</ele><time>2026-04-27T15:12:02.993Z</time></trkpt><trkpt lat="39.48883744613151" lon="8.512790293094934"><ele>478.00000000000006</ele><time>2026-04-27T15:12:03.993Z</time></trkpt><trkpt lat="39.488799050237084" lon="8.512882828585179"><ele>478.0</ele><time>2026-04-27T15:12:04.993Z</time></trkpt><trkpt lat="39.48877706455133" lon="8.512975412517049"><ele>478.0</ele><time>2026-04-27T15:12:05.993Z</time></trkpt><trkpt lat="39.488755576411734" lon="8.513068687078286"><ele>478.0</ele><time>2026-04-27T15:12:06.993Z</time></trkpt><trkpt lat="39.48873438948897" lon="8.5131854552616"><ele>478.00000000000006</ele><time>2026-04-27T15:12:07.993Z</time></trkpt><trkpt lat="39.488717199018076" lon="8.513299480766507"><ele>478.0</ele><time>2026-04-27T15:12:08.993Z</time></trkpt><trkpt lat="39.48869924126302" lon="8.513418596019644"><ele>476.79999999999995</ele><time>2026-04-27T15:12:09.993Z</time></trkpt><trkpt lat="39.4886895583973" lon="8.513545376615147"><ele>475.59999999999997</ele><time>2026-04-27T15:12:10.993Z</time></trkpt><trkpt lat="39.488684888853804" lon="8.51366034763778"><ele>474.40000000000003</ele><time>2026-04-27T15:12:11.993Z</time></trkpt><trkpt lat="39.48863848748878" lon="8.513761816119422"><ele>473.20000000000005</ele><time>2026-04-27T15:12:12.993Z</time></trkpt><trkpt lat="39.48863195364539" lon="8.51385371292214"><ele>472.0</ele><time>2026-04-27T15:12:13.993Z</time></trkpt><trkpt lat="39.4886188302557" lon="8.514011366204956"><ele>471.50000000000006</ele><time>2026-04-27T15:12:15.993Z</time></trkpt><trkpt lat="39.488605479950046" lon="8.514091782582499"><ele>471.0</ele><time>2026-04-27T15:12:16.993Z</time></trkpt><trkpt lat="39.4885820702977" lon="8.51418930948639"><ele>470.5</ele><time>2026-04-27T15:12:17.993Z</time></trkpt><trkpt lat="39.488554879222065" lon="8.51429009299009"><ele>470.0</ele><time>2026-04-27T15:12:18.993Z</time></trkpt><trkpt lat="39.488531685114125" lon="8.51440395339155"><ele>469.50000000000006</ele><time>2026-04-27T15:12:19.993Z</time></trkpt><trkpt lat="39.488482672042444" lon="8.514508573347669"><ele>469.0</ele><time>2026-04-27T15:12:20.993Z</time></trkpt><trkpt lat="39.48843051326246" lon="8.51462403183423"><ele>468.25</ele><time>2026-04-27T15:12:21.993Z</time></trkpt><trkpt lat="39.4883802882692" lon="8.514749274789908"><ele>467.5</ele><time>2026-04-27T15:12:22.993Z</time></trkpt><trkpt lat="39.48833376698243" lon="8.514884559331694"><ele>466.75</ele><time>2026-04-27T15:12:23.993Z</time></trkpt><trkpt lat="39.488297303611404" lon="8.515039578663712"><ele>466.0</ele><time>2026-04-27T15:12:24.993Z</time></trkpt><trkpt lat="39.48825299871131" lon="8.515198712857183"><ele>466.0</ele><time>2026-04-27T15:12:25.993Z</time></trkpt><trkpt lat="39.48821612838143" lon="8.515365337541784"><ele>466.0</ele><time>2026-04-27T15:12:26.993Z</time></trkpt><trkpt lat="39.48818332521859" lon="8.515522717099747"><ele>466.0</ele><time>2026-04-27T15:12:27.993Z</time></trkpt><trkpt lat="39.488158129339915" lon="8.515675258430328"><ele>466.0</ele><time>2026-04-27T15:12:28.993Z</time></trkpt><trkpt lat="39.48812847948551" lon="8.515823546361409"><ele>465.5</ele><time>2026-04-27T15:12:29.993Z</time></trkpt><trkpt lat="39.48809577370349" lon="8.515967332511071"><ele>465.0</ele><time>2026-04-27T15:12:30.993Z</time></trkpt><trkpt lat="39.48806845728233" lon="8.516109282763203"><ele>464.5</ele><time>2026-04-27T15:12:31.993Z</time></trkpt><trkpt lat="39.488036781695676" lon="8.516259076521628"><ele>464.0</ele><time>2026-04-27T15:12:32.993Z</time></trkpt><trkpt lat="39.488004740542316" lon="8.51642758116415"><ele>463.75</ele><time>2026-04-27T15:12:33.993Z</time></trkpt><trkpt lat="39.48796326512949" lon="8.516586647941853"><ele>463.5</ele><time>2026-04-27T15:12:34.993Z</time></trkpt><trkpt lat="39.48791000893201" lon="8.516749132633377"><ele>463.25</ele><time>2026-04-27T15:12:35.993Z</time></trkpt><trkpt lat="39.487848736064144" lon="8.516926432915934"><ele>463.0</ele><time>2026-04-27T15:12:36.993Z</time></trkpt><trkpt lat="39.487776813366175" lon="8.517125958649764"><ele>463.00000000000006</ele><time>2026-04-27T15:12:37.993Z</time></trkpt><trkpt lat="39.487807782654286" lon="8.517026956714389"><ele>463.0</ele><time>2026-04-27T15:12:38.993Z</time></trkpt><trkpt lat="39.487775525847674" lon="8.5171221835156"><ele>463.0</ele><time>2026-04-27T15:12:39.993Z</time></trkpt><trkpt lat="39.487756331620425" lon="8.517233242176495"><ele>463.0</ele><time>2026-04-27T15:12:40.993Z</time></trkpt><trkpt lat="39.48771444957961" lon="8.517324749980363"><ele>463.00000000000006</ele><time>2026-04-27T15:12:41.993Z</time></trkpt><trkpt lat="39.48768636432412" lon="8.517423410032206"><ele>463.0</ele><time>2026-04-27T15:12:42.993Z</time></trkpt><trkpt lat="39.487657934676854" lon="8.517521643235417"><ele>462.71428571428567</ele><time>2026-04-27T15:12:43.993Z</time></trkpt><trkpt lat="39.487650673656205" lon="8.517612733968814"><ele>462.4285714285714</ele><time>2026-04-27T15:12:44.993Z</time></trkpt><trkpt lat="39.48762879164692" lon="8.517695073312822"><ele>462.1428571428571</ele><time>2026-04-27T15:12:46.993Z</time></trkpt><trkpt lat="39.48761099755164" lon="8.517788976922006"><ele>461.8571428571429</ele><time>2026-04-27T15:12:49.993Z</time></trkpt><trkpt lat="39.48760081471612" lon="8.517871512848624"><ele>461.5714285714286</ele><time>2026-04-27T15:12:50.993Z</time></trkpt><trkpt lat="39.48757051626537" lon="8.517963251156957"><ele>461.28571428571433</ele><time>2026-04-27T15:12:51.993Z</time></trkpt><trkpt lat="39.48755183133149" lon="8.518049377992918"><ele>461.0</ele><time>2026-04-27T15:12:52.993Z</time></trkpt><trkpt lat="39.48752858359376" lon="8.518156526103454"><ele>460.8</ele><time>2026-04-27T15:12:53.993Z</time></trkpt><trkpt lat="39.487515586659185" lon="8.518280330546133"><ele>460.6</ele><time>2026-04-27T15:12:54.993Z</time></trkpt><trkpt lat="39.48749083458389" lon="8.518396387731379"><ele>460.4</ele><time>2026-04-27T15:12:55.993Z</time></trkpt><trkpt lat="39.487475643770985" lon="8.518520138044682"><ele>460.2</ele><time>2026-04-27T15:12:56.993Z</time></trkpt><trkpt lat="39.487466396869735" lon="8.518632430249449"><ele>460.0</ele><time>2026-04-27T15:12:57.993Z</time></trkpt><trkpt lat="39.48745861870559" lon="8.518738650463256"><ele>460.00000000000006</ele><time>2026-04-27T15:12:58.993Z</time></trkpt><trkpt lat="39.487461327917615" lon="8.518845923917302"><ele>460.0</ele><time>2026-04-27T15:12:59.993Z</time></trkpt><trkpt lat="39.48747874586452" lon="8.5189643464936"><ele>460.0</ele><time>2026-04-27T15:13:00.993Z</time></trkpt><trkpt lat="39.48749707178996" lon="8.519084542828411"><ele>460.0</ele><time>2026-04-27T15:13:01.993Z</time></trkpt><trkpt lat="39.48751255964362" lon="8.519191770182982"><ele>460.00000000000006</ele><time>2026-04-27T15:13:02.993Z</time></trkpt><trkpt lat="39.48755619585285" lon="8.519285582430117"><ele>460.0</ele><time>2026-04-27T15:13:03.993Z</time></trkpt><trkpt lat="39.48759527321067" lon="8.519372310244089"><ele>460.0</ele><time>2026-04-27T15:13:04.993Z</time></trkpt><trkpt lat="39.48764134236554" lon="8.519449940613141"><ele>460.0</ele><time>2026-04-27T15:13:05.993Z</time></trkpt><trkpt lat="39.487713718766656" lon="8.51956716329939"><ele>460.0</ele><time>2026-04-27T15:13:06.993Z</time></trkpt><trkpt lat="39.487778936102394" lon="8.519691475467495"><ele>460.0</ele><time>2026-04-27T15:13:07.993Z</time></trkpt><trkpt lat="39.48784192075894" lon="8.519817488201946"><ele>460.0</ele><time>2026-04-27T15:13:08.993Z</time></trkpt><trkpt lat="39.48790177492963" lon="8.519940672918459"><ele>458.6</ele><time>2026-04-27T15:13:09.993Z</time></trkpt><trkpt lat="39.48795317411869" lon="8.520063462540138"><ele>457.2</ele><time>2026-04-27T15:13:10.993Z</time></trkpt><trkpt lat="39.48799559046061" lon="8.520173640258427"><ele>455.79999999999995</ele><time>2026-04-27T15:13:11.993Z</time></trkpt><trkpt lat="39.48800327166474" lon="8.520302376342796"><ele>454.4</ele><time>2026-04-27T15:13:12.993Z</time></trkpt><trkpt lat="39.48803998192828" lon="8.520439023283542"><ele>453.0</ele><time>2026-04-27T15:13:13.993Z</time></trkpt><trkpt lat="39.48805733909147" lon="8.520594626493274"><ele>452.5</ele><time>2026-04-27T15:13:14.993Z</time></trkpt><trkpt lat="39.48807893519169" lon="8.520749147138197"><ele>452.0</ele><time>2026-04-27T15:13:15.993Z</time></trkpt><trkpt lat="39.48810231675008" lon="8.520897201244171"><ele>451.5</ele><time>2026-04-27T15:13:16.993Z</time></trkpt><trkpt lat="39.48813830661768" lon="8.521039658911054"><ele>451.0</ele><time>2026-04-27T15:13:17.993Z</time></trkpt><trkpt lat="39.48817309929613" lon="8.521189250515125"><ele>450.0</ele><time>2026-04-27T15:13:18.993Z</time></trkpt><trkpt lat="39.4882097025157" lon="8.521340695671407"><ele>449.0</ele><time>2026-04-27T15:13:19.993Z</time></trkpt><trkpt lat="39.48822524963688" lon="8.521477688561497"><ele>448.0</ele><time>2026-04-27T15:13:20.993Z</time></trkpt><trkpt lat="39.48823298745394" lon="8.521634066204776"><ele>447.0</ele><time>2026-04-27T15:13:21.993Z</time></trkpt><trkpt lat="39.48823828812988" lon="8.521788883523973"><ele>447.0</ele><time>2026-04-27T15:13:22.993Z</time></trkpt><trkpt lat="39.48823974729678" lon="8.521952925921891"><ele>447.0</ele><time>2026-04-27T15:13:23.993Z</time></trkpt><trkpt lat="39.48823787865115" lon="8.522110854772071"><ele>447.0</ele><time>2026-04-27T15:13:24.993Z</time></trkpt><trkpt lat="39.488250126556316" lon="8.522271491957513"><ele>447.0</ele><time>2026-04-27T15:13:25.993Z</time></trkpt><trkpt lat="39.48825634257147" lon="8.522440040264195"><ele>446.25</ele><time>2026-04-27T15:13:26.993Z</time></trkpt><trkpt lat="39.48827954260507" lon="8.522598261882857"><ele>445.5</ele><time>2026-04-27T15:13:27.993Z</time></trkpt><trkpt lat="39.48828853427109" lon="8.522751498854559"><ele>444.75</ele><time>2026-04-27T15:13:28.993Z</time></trkpt><trkpt lat="39.488291334378175" lon="8.5229104678213"><ele>444.0</ele><time>2026-04-27T15:13:29.993Z</time></trkpt><trkpt lat="39.488299868006195" lon="8.523062460801118"><ele>444.0</ele><time>2026-04-27T15:13:30.993Z</time></trkpt><trkpt lat="39.48831272247417" lon="8.523211801261127"><ele>444.0</ele><time>2026-04-27T15:13:31.993Z</time></trkpt><trkpt lat="39.48832649175435" lon="8.523359467478393"><ele>444.0</ele><time>2026-04-27T15:13:32.993Z</time></trkpt><trkpt lat="39.4883472100224" lon="8.523503524838741"><ele>444.0</ele><time>2026-04-27T15:13:33.993Z</time></trkpt><trkpt lat="39.48836885792172" lon="8.523639206728788"><ele>444.0</ele><time>2026-04-27T15:13:34.993Z</time></trkpt><trkpt lat="39.48839127199086" lon="8.523768561573869"><ele>444.0</ele><time>2026-04-27T15:13:35.993Z</time></trkpt><trkpt lat="39.48841072219138" lon="8.523875366452682"><ele>444.0</ele><time>2026-04-27T15:13:36.993Z</time></trkpt><trkpt lat="39.48843478764032" lon="8.523974914446313"><ele>444.0</ele><time>2026-04-27T15:13:37.993Z</time></trkpt><trkpt lat="39.48846258977926" lon="8.524050439029892"><ele>444.0</ele><time>2026-04-27T15:13:38.993Z</time></trkpt><trkpt lat="39.488468666111714" lon="8.524132407333662"><ele>444.0</ele><time>2026-04-27T15:13:40.993Z</time></trkpt><trkpt lat="39.488507327769256" lon="8.524237532395064"><ele>444.0</ele><time>2026-04-27T15:13:49.993Z</time></trkpt><trkpt lat="39.4885217293285" lon="8.5243547940671"><ele>444.0</ele><time>2026-04-27T15:13:51.993Z</time></trkpt><trkpt lat="39.488521468892976" lon="8.524462595507153"><ele>444.0</ele><time>2026-04-27T15:13:53.993Z</time></trkpt><trkpt lat="39.48851488328894" lon="8.524561321967047"><ele>444.0</ele><time>2026-04-27T15:13:55.993Z</time></trkpt><trkpt lat="39.488513179700064" lon="8.524705499395168"><ele>444.0</ele><time>2026-04-27T15:13:57.992Z</time></trkpt><trkpt lat="39.48850654996067" lon="8.524821134605709"><ele>443.6</ele><time>2026-04-27T15:13:58.992Z</time></trkpt><trkpt lat="39.48853953372779" lon="8.524936537106745"><ele>443.2</ele><time>2026-04-27T15:13:59.991Z</time></trkpt><trkpt lat="39.48856497374864" lon="8.52504879756895"><ele>442.80000000000007</ele><time>2026-04-27T15:14:00.991Z</time></trkpt><trkpt lat="39.4885933565958" lon="8.525163758246434"><ele>442.40000000000003</ele><time>2026-04-27T15:14:01.991Z</time></trkpt><trkpt lat="39.488640966362375" lon="8.525267319454375"><ele>442.0</ele><time>2026-04-27T15:14:02.991Z</time></trkpt><trkpt lat="39.488673042894234" lon="8.525389763563663"><ele>441.33333333333337</ele><time>2026-04-27T15:14:03.992Z</time></trkpt><trkpt lat="39.488706397310565" lon="8.525493259333498"><ele>440.6666666666667</ele><time>2026-04-27T15:14:04.992Z</time></trkpt><trkpt lat="39.48873495202548" lon="8.525600775871942"><ele>440.0</ele><time>2026-04-27T15:14:05.992Z</time></trkpt><trkpt lat="39.48876423401165" lon="8.525689255955278"><ele>439.33333333333337</ele><time>2026-04-27T15:14:06.992Z</time></trkpt><trkpt lat="39.48874901903941" lon="8.52579624288276"><ele>438.6666666666667</ele><time>2026-04-27T15:14:07.992Z</time></trkpt><trkpt lat="39.48872557325601" lon="8.525899684615382"><ele>438.0</ele><time>2026-04-27T15:14:08.992Z</time></trkpt><trkpt lat="39.48869040485472" lon="8.525985933873013"><ele>438.0</ele><time>2026-04-27T15:14:09.992Z</time></trkpt><trkpt lat="39.488603819545936" lon="8.52608287279333"><ele>437.99999999999994</ele><time>2026-04-27T15:14:11.992Z</time></trkpt><trkpt lat="39.488521881491" lon="8.526134545150313"><ele>437.99999999999994</ele><time>2026-04-27T15:14:12.992Z</time></trkpt><trkpt lat="39.488421979584366" lon="8.52617128542631"><ele>438.0</ele><time>2026-04-27T15:14:13.992Z</time></trkpt><trkpt lat="39.48832930806356" lon="8.526217290447727"><ele>438.0</ele><time>2026-04-27T15:14:14.992Z</time></trkpt><trkpt lat="39.48823985736482" lon="8.526266095457188"><ele>437.0</ele><time>2026-04-27T15:14:15.992Z</time></trkpt><trkpt lat="39.48815886932273" lon="8.52632244643782"><ele>436.0</ele><time>2026-04-27T15:14:16.992Z</time></trkpt><trkpt lat="39.4880922510879" lon="8.526373902560215"><ele>435.0</ele><time>2026-04-27T15:14:17.992Z</time></trkpt><trkpt lat="39.48801135444897" lon="8.526461344427313"><ele>434.0</ele><time>2026-04-27T15:14:19.992Z</time></trkpt><trkpt lat="39.48802585886018" lon="8.52659107625399"><ele>433.0</ele><time>2026-04-27T15:14:21.992Z</time></trkpt><trkpt lat="39.48801941666159" lon="8.526677685686012"><ele>432.0</ele><time>2026-04-27T15:14:22.992Z</time></trkpt><trkpt lat="39.48803659092977" lon="8.52678112196238"><ele>432.0</ele><time>2026-04-27T15:14:23.992Z</time></trkpt><trkpt lat="39.48806537287903" lon="8.52688054040872"><ele>432.0</ele><time>2026-04-27T15:14:24.992Z</time></trkpt><trkpt lat="39.4880960927293" lon="8.52697481630756"><ele>432.0</ele><time>2026-04-27T15:14:25.992Z</time></trkpt><trkpt lat="39.48813903724113" lon="8.527069196720507"><ele>432.0</ele><time>2026-04-27T15:14:26.992Z</time></trkpt><trkpt lat="39.48815059360264" lon="8.527172444833367"><ele>432.0</ele><time>2026-04-27T15:14:27.992Z</time></trkpt><trkpt lat="39.48814326783539" lon="8.527282697332048"><ele>432.0</ele><time>2026-04-27T15:14:28.992Z</time></trkpt><trkpt lat="39.48811728919531" lon="8.527390834934957"><ele>432.20000000000005</ele><time>2026-04-27T15:14:29.992Z</time></trkpt><trkpt lat="39.488093093759154" lon="8.527493175412575"><ele>432.40000000000003</ele><time>2026-04-27T15:14:30.992Z</time></trkpt><trkpt lat="39.48805149476125" lon="8.52761394614366"><ele>432.59999999999997</ele><time>2026-04-27T15:14:31.992Z</time></trkpt><trkpt lat="39.488005741504466" lon="8.527733598745924"><ele>432.79999999999995</ele><time>2026-04-27T15:14:32.992Z</time></trkpt><trkpt lat="39.48795247995705" lon="8.527879374826588"><ele>433.0</ele><time>2026-04-27T15:14:33.992Z</time></trkpt><trkpt lat="39.48790923204732" lon="8.528019603763903"><ele>434.25</ele><time>2026-04-27T15:14:34.992Z</time></trkpt><trkpt lat="39.487869524992725" lon="8.528169656289734"><ele>435.5</ele><time>2026-04-27T15:14:35.992Z</time></trkpt><trkpt lat="39.4878302540235" lon="8.528307415777373"><ele>436.75</ele><time>2026-04-27T15:14:36.992Z</time></trkpt><trkpt lat="39.48778887225986" lon="8.528450303932102"><ele>438.0</ele><time>2026-04-27T15:14:37.992Z</time></trkpt><trkpt lat="39.48774758968521" lon="8.528573645563338"><ele>438.0</ele><time>2026-04-27T15:14:38.992Z</time></trkpt><trkpt lat="39.48769539468897" lon="8.528704816157926"><ele>437.99999999999994</ele><time>2026-04-27T15:14:39.992Z</time></trkpt><trkpt lat="39.4876512762276" lon="8.528853918908366"><ele>437.99999999999994</ele><time>2026-04-27T15:14:40.992Z</time></trkpt><trkpt lat="39.487605028668916" lon="8.528986151611548"><ele>438.0</ele><time>2026-04-27T15:14:41.992Z</time></trkpt><trkpt lat="39.487554017540546" lon="8.52908520261064"><ele>438.0</ele><time>2026-04-27T15:14:42.992Z</time></trkpt><trkpt lat="39.48749729892651" lon="8.529165473064735"><ele>438.4</ele><time>2026-04-27T15:14:43.992Z</time></trkpt><trkpt lat="39.48742650116513" lon="8.52923242293674"><ele>438.79999999999995</ele><time>2026-04-27T15:14:44.992Z</time></trkpt><trkpt lat="39.48734290187898" lon="8.529282179334533"><ele>439.2</ele><time>2026-04-27T15:14:45.992Z</time></trkpt><trkpt lat="39.48726627728013" lon="8.529361865533616"><ele>439.6</ele><time>2026-04-27T15:14:46.992Z</time></trkpt><trkpt lat="39.48718946958342" lon="8.529443755800223"><ele>440.0</ele><time>2026-04-27T15:14:47.992Z</time></trkpt><trkpt lat="39.4870912489952" lon="8.529526569513433"><ele>441.0</ele><time>2026-04-27T15:14:48.992Z</time></trkpt><trkpt lat="39.48699492210055" lon="8.529601382423715"><ele>442.0</ele><time>2026-04-27T15:14:49.992Z</time></trkpt><trkpt lat="39.48688990718507" lon="8.529680468887669"><ele>443.0</ele><time>2026-04-27T15:14:50.992Z</time></trkpt><trkpt lat="39.48678147164135" lon="8.529755230819877"><ele>444.0</ele><time>2026-04-27T15:14:51.992Z</time></trkpt><trkpt lat="39.48667471055591" lon="8.529815405879303"><ele>444.0</ele><time>2026-04-27T15:14:52.992Z</time></trkpt><trkpt lat="39.4865737790114" lon="8.529880766789333"><ele>444.0</ele><time>2026-04-27T15:14:53.992Z</time></trkpt><trkpt lat="39.48647401161084" lon="8.529966553790343"><ele>444.0</ele><time>2026-04-27T15:14:54.992Z</time></trkpt><trkpt lat="39.48637332626644" lon="8.530067201821492"><ele>444.0</ele><time>2026-04-27T15:14:55.992Z</time></trkpt><trkpt lat="39.48627312834609" lon="8.53015735298227"><ele>444.0</ele><time>2026-04-27T15:14:56.992Z</time></trkpt><trkpt lat="39.48617180747111" lon="8.530237034434338"><ele>444.0</ele><time>2026-04-27T15:14:57.992Z</time></trkpt><trkpt lat="39.486064018960235" lon="8.530309050536315"><ele>444.0</ele><time>2026-04-27T15:14:58.992Z</time></trkpt><trkpt lat="39.48595453099657" lon="8.53035241065922"><ele>444.0</ele><time>2026-04-27T15:14:59.992Z</time></trkpt><trkpt lat="39.48586744387941" lon="8.530389740703862"><ele>444.0</ele><time>2026-04-27T15:15:00.992Z</time></trkpt><trkpt lat="39.48578691909269" lon="8.53041890949519"><ele>444.0</ele><time>2026-04-27T15:15:01.992Z</time></trkpt><trkpt lat="39.48569577084835" lon="8.530440223134422"><ele>444.0</ele><time>2026-04-27T15:15:02.992Z</time></trkpt><trkpt lat="39.485595603454264" lon="8.530459188482851"><ele>444.0</ele><time>2026-04-27T15:15:03.992Z</time></trkpt><trkpt lat="39.48549332875747" lon="8.53041107034003"><ele>444.0</ele><time>2026-04-27T15:15:04.992Z</time></trkpt><trkpt lat="39.485379442172714" lon="8.530381354443387"><ele>444.0</ele><time>2026-04-27T15:15:05.992Z</time></trkpt><trkpt lat="39.48526399543242" lon="8.53039417194481"><ele>443.6</ele><time>2026-04-27T15:15:06.992Z</time></trkpt><trkpt lat="39.48515012950914" lon="8.53041087490224"><ele>443.2</ele><time>2026-04-27T15:15:07.992Z</time></trkpt><trkpt lat="39.485041250098156" lon="8.530449937836792"><ele>442.80000000000007</ele><time>2026-04-27T15:15:08.992Z</time></trkpt><trkpt lat="39.48494265835844" lon="8.530500696646579"><ele>442.40000000000003</ele><time>2026-04-27T15:15:09.992Z</time></trkpt><trkpt lat="39.48486025895427" lon="8.530568840040257"><ele>442.0</ele><time>2026-04-27T15:15:10.992Z</time></trkpt><trkpt lat="39.484784061144985" lon="8.53064791713389"><ele>442.0</ele><time>2026-04-27T15:15:11.992Z</time></trkpt><trkpt lat="39.48469399767446" lon="8.530737605902914"><ele>442.00000000000006</ele><time>2026-04-27T15:15:12.992Z</time></trkpt><trkpt lat="39.484612689684035" lon="8.530838483731387"><ele>442.00000000000006</ele><time>2026-04-27T15:15:13.992Z</time></trkpt><trkpt lat="39.48453913715281" lon="8.53093679562342"><ele>442.0</ele><time>2026-04-27T15:15:14.992Z</time></trkpt><trkpt lat="39.48446935602119" lon="8.531031937776762"><ele>442.0</ele><time>2026-04-27T15:15:15.992Z</time></trkpt><trkpt lat="39.484405559108495" lon="8.531126279720917"><ele>442.6666666666667</ele><time>2026-04-27T15:15:16.992Z</time></trkpt><trkpt lat="39.48435042982598" lon="8.53121475424874"><ele>443.33333333333337</ele><time>2026-04-27T15:15:17.992Z</time></trkpt><trkpt lat="39.484300854127106" lon="8.531307179251435"><ele>444.0</ele><time>2026-04-27T15:15:18.992Z</time></trkpt><trkpt lat="39.484248283044124" lon="8.53139102255348"><ele>444.66666666666663</ele><time>2026-04-27T15:15:19.992Z</time></trkpt><trkpt lat="39.48419255338402" lon="8.531484035271058"><ele>445.3333333333333</ele><time>2026-04-27T15:15:20.992Z</time></trkpt><trkpt lat="39.484143883577254" lon="8.531574680236377"><ele>446.0</ele><time>2026-04-27T15:15:21.992Z</time></trkpt><trkpt lat="39.48409544309237" lon="8.531663715506522"><ele>443.4</ele><time>2026-04-27T15:15:22.992Z</time></trkpt><trkpt lat="39.48406226294607" lon="8.531759369619158"><ele>440.8</ele><time>2026-04-27T15:15:23.992Z</time></trkpt><trkpt lat="39.484028062501274" lon="8.531887931715765"><ele>438.19999999999993</ele><time>2026-04-27T15:15:24.992Z</time></trkpt><trkpt lat="39.48399109111601" lon="8.531999844543677"><ele>435.59999999999997</ele><time>2026-04-27T15:15:25.992Z</time></trkpt><trkpt lat="39.48394913332064" lon="8.532107880045109"><ele>433.0</ele><time>2026-04-27T15:15:26.992Z</time></trkpt><trkpt lat="39.483897279466795" lon="8.532221083921256"><ele>434.0</ele><time>2026-04-27T15:15:27.992Z</time></trkpt><trkpt lat="39.48384772495835" lon="8.53232126356766"><ele>434.99999999999994</ele><time>2026-04-27T15:15:28.992Z</time></trkpt><trkpt lat="39.48380389660133" lon="8.532425579996334"><ele>435.99999999999994</ele><time>2026-04-27T15:15:29.992Z</time></trkpt><trkpt lat="39.483762317593886" lon="8.53251255987923"><ele>437.0</ele><time>2026-04-27T15:15:30.992Z</time></trkpt><trkpt lat="39.483731063942976" lon="8.53258537204853"><ele>438.0</ele><time>2026-04-27T15:15:31.992Z</time></trkpt><trkpt lat="39.48365967475735" lon="8.532716619406521"><ele>433.0</ele><time>2026-04-27T15:15:33.992Z</time></trkpt><trkpt lat="39.483450989779534" lon="8.533108750893865"><ele>428.0</ele><time>2026-04-27T15:15:35.992Z</time></trkpt><trkpt lat="39.48338294652303" lon="8.533154237757863"><ele>423.0</ele><time>2026-04-27T15:15:36.992Z</time></trkpt><trkpt lat="39.48331063639375" lon="8.533206470135962"><ele>423.0</ele><time>2026-04-27T15:15:37.992Z</time></trkpt><trkpt lat="39.48323728441712" lon="8.533274051197992"><ele>423.0</ele><time>2026-04-27T15:15:38.992Z</time></trkpt><trkpt lat="39.483161653855205" lon="8.533336765058678"><ele>423.0</ele><time>2026-04-27T15:15:39.992Z</time></trkpt><trkpt lat="39.48310899086062" lon="8.533395391541179"><ele>423.0</ele><time>2026-04-27T15:15:40.992Z</time></trkpt><trkpt lat="39.48308737911225" lon="8.533477483279652"><ele>423.0</ele><time>2026-04-27T15:15:41.992Z</time></trkpt><trkpt lat="39.48309302240948" lon="8.533585777353808"><ele>423.0</ele><time>2026-04-27T15:15:42.992Z</time></trkpt><trkpt lat="39.48307878308681" lon="8.533690736863944"><ele>422.0</ele><time>2026-04-27T15:15:43.992Z</time></trkpt><trkpt lat="39.48306969671313" lon="8.533810343963166"><ele>421.0</ele><time>2026-04-27T15:15:44.992Z</time></trkpt><trkpt lat="39.48306587668334" lon="8.533933804281554"><ele>420.0</ele><time>2026-04-27T15:15:45.992Z</time></trkpt><trkpt lat="39.48305432018611" lon="8.534056605130877"><ele>419.0</ele><time>2026-04-27T15:15:46.992Z</time></trkpt><trkpt lat="39.48302036981341" lon="8.53417343820301"><ele>418.0</ele><time>2026-04-27T15:15:47.992Z</time></trkpt><trkpt lat="39.482984964606366" lon="8.534280671778427"><ele>418.00000000000006</ele><time>2026-04-27T15:15:48.992Z</time></trkpt><trkpt lat="39.48295403232459" lon="8.534390657506053"><ele>418.0</ele><time>2026-04-27T15:15:49.992Z</time></trkpt><trkpt lat="39.48290783777352" lon="8.534487331651146"><ele>418.0</ele><time>2026-04-27T15:15:50.992Z</time></trkpt><trkpt lat="39.48283279624818" lon="8.534573611208806"><ele>418.0</ele><time>2026-04-27T15:15:51.992Z</time></trkpt><trkpt lat="39.48275987922177" lon="8.534629468223326"><ele>418.00000000000006</ele><time>2026-04-27T15:15:52.992Z</time></trkpt><trkpt lat="39.48269068543117" lon="8.534682934377845"><ele>418.0</ele><time>2026-04-27T15:15:53.992Z</time></trkpt><trkpt lat="39.48260818885292" lon="8.534747903958534"><ele>420.2</ele><time>2026-04-27T15:15:54.992Z</time></trkpt><trkpt lat="39.48252524950112" lon="8.534815463762738"><ele>422.4</ele><time>2026-04-27T15:15:55.992Z</time></trkpt><trkpt lat="39.482420771588885" lon="8.534878788656552"><ele>424.59999999999997</ele><time>2026-04-27T15:15:56.992Z</time></trkpt><trkpt lat="39.48232577695979" lon="8.53495603910107"><ele>426.79999999999995</ele><time>2026-04-27T15:15:57.992Z</time></trkpt><trkpt lat="39.482251824254234" lon="8.535036386653587"><ele>429.0</ele><time>2026-04-27T15:15:58.992Z</time></trkpt><trkpt lat="39.48219191059225" lon="8.535113278489092"><ele>429.0</ele><time>2026-04-27T15:15:59.992Z</time></trkpt><trkpt lat="39.482156882822366" lon="8.535182304644351"><ele>429.0</ele><time>2026-04-27T15:16:00.992Z</time></trkpt><trkpt lat="39.482117903248984" lon="8.535255471995074"><ele>429.0</ele><time>2026-04-27T15:16:01.992Z</time></trkpt><trkpt lat="39.48209619948948" lon="8.535363734846435"><ele>429.0</ele><time>2026-04-27T15:16:02.991Z</time></trkpt><trkpt lat="39.48206243302845" lon="8.535461820990356"><ele>429.0</ele><time>2026-04-27T15:16:03.992Z</time></trkpt><trkpt lat="39.48201517415903" lon="8.535531671398786"><ele>429.0</ele><time>2026-04-27T15:16:04.992Z</time></trkpt><trkpt lat="39.48195048912583" lon="8.535617526718529"><ele>430.75</ele><time>2026-04-27T15:16:05.991Z</time></trkpt><trkpt lat="39.48188990379849" lon="8.535728714287396"><ele>432.5</ele><time>2026-04-27T15:16:06.992Z</time></trkpt><trkpt lat="39.481818939459146" lon="8.535840153932728"><ele>434.25</ele><time>2026-04-27T15:16:07.992Z</time></trkpt><trkpt lat="39.48175206300631" lon="8.535977822530086"><ele>436.0</ele><time>2026-04-27T15:16:08.992Z</time></trkpt><trkpt lat="39.48168900299857" lon="8.536109440124305"><ele>432.25</ele><time>2026-04-27T15:16:09.992Z</time></trkpt><trkpt lat="39.48163969901678" lon="8.536244204190387"><ele>428.5</ele><time>2026-04-27T15:16:10.992Z</time></trkpt><trkpt lat="39.48159596101344" lon="8.536382327403105"><ele>424.75</ele><time>2026-04-27T15:16:11.991Z</time></trkpt><trkpt lat="39.48155159702372" lon="8.536527472764304"><ele>421.0</ele><time>2026-04-27T15:16:12.991Z</time></trkpt><trkpt lat="39.48150892870755" lon="8.536685921019"><ele>421.0</ele><time>2026-04-27T15:16:13.991Z</time></trkpt><trkpt lat="39.481448155132455" lon="8.536822147122063"><ele>421.0</ele><time>2026-04-27T15:16:14.991Z</time></trkpt><trkpt lat="39.48138873638188" lon="8.536962311624297"><ele>421.0</ele><time>2026-04-27T15:16:15.992Z</time></trkpt><trkpt lat="39.481327840516066" lon="8.5370860819497"><ele>421.0</ele><time>2026-04-27T15:16:16.992Z</time></trkpt><trkpt lat="39.48128129955685" lon="8.53721300116247"><ele>423.8</ele><time>2026-04-27T15:16:17.992Z</time></trkpt><trkpt lat="39.481231730181" lon="8.537343903830376"><ele>426.6</ele><time>2026-04-27T15:16:18.992Z</time></trkpt><trkpt lat="39.48118622811053" lon="8.537466470407319"><ele>429.4</ele><time>2026-04-27T15:16:19.992Z</time></trkpt><trkpt lat="39.48114752744745" lon="8.537588545837414"><ele>432.2</ele><time>2026-04-27T15:16:20.992Z</time></trkpt><trkpt lat="39.48113760214068" lon="8.537712798251995"><ele>435.0</ele><time>2026-04-27T15:16:21.992Z</time></trkpt><trkpt lat="39.48113499940267" lon="8.53785664399925"><ele>432.0</ele><time>2026-04-27T15:16:22.992Z</time></trkpt><trkpt lat="39.48113413935968" lon="8.538002850903963"><ele>429.0</ele><time>2026-04-27T15:16:23.992Z</time></trkpt><trkpt lat="39.481124169257484" lon="8.53813429166059"><ele>426.0</ele><time>2026-04-27T15:16:24.992Z</time></trkpt><trkpt lat="39.4810893948078" lon="8.538223273686542"><ele>423.0</ele><time>2026-04-27T15:16:25.992Z</time></trkpt><trkpt lat="39.48102088229257" lon="8.538293576185893"><ele>420.0</ele><time>2026-04-27T15:16:26.992Z</time></trkpt><trkpt lat="39.480948723723714" lon="8.53838673944016"><ele>420.0</ele><time>2026-04-27T15:16:27.992Z</time></trkpt><trkpt lat="39.48086318427196" lon="8.538470326297238"><ele>420.0</ele><time>2026-04-27T15:16:28.992Z</time></trkpt><trkpt lat="39.48077593482297" lon="8.538575618536347"><ele>420.0</ele><time>2026-04-27T15:16:29.992Z</time></trkpt><trkpt lat="39.4806791870531" lon="8.538677217087375"><ele>420.0</ele><time>2026-04-27T15:16:30.992Z</time></trkpt><trkpt lat="39.48058822007652" lon="8.538762397946726"><ele>418.8</ele><time>2026-04-27T15:16:31.992Z</time></trkpt><trkpt lat="39.48049662437384" lon="8.538846967588718"><ele>417.6</ele><time>2026-04-27T15:16:32.992Z</time></trkpt><trkpt lat="39.48042219671983" lon="8.538915291601645"><ele>416.4</ele><time>2026-04-27T15:16:33.992Z</time></trkpt><trkpt lat="39.48035713563933" lon="8.538991178954618"><ele>415.2</ele><time>2026-04-27T15:16:34.992Z</time></trkpt><trkpt lat="39.4802827595272" lon="8.539036787269211"><ele>414.0</ele><time>2026-04-27T15:16:35.992Z</time></trkpt><trkpt lat="39.480182625801575" lon="8.539136566712164"><ele>414.0</ele><time>2026-04-27T15:16:37.992Z</time></trkpt><trkpt lat="39.480087521202385" lon="8.53921791736199"><ele>414.0</ele><time>2026-04-27T15:16:39.992Z</time></trkpt><trkpt lat="39.4798640726295" lon="8.538998021380836"><ele>414.0</ele><time>2026-04-27T15:16:40.992Z</time></trkpt><trkpt lat="39.479767283065" lon="8.538962039781085"><ele>414.0</ele><time>2026-04-27T15:16:41.992Z</time></trkpt><trkpt lat="39.479660214158365" lon="8.538914249527632"><ele>414.0</ele><time>2026-04-27T15:16:42.992Z</time></trkpt><trkpt lat="39.47954609992081" lon="8.53886012527816"><ele>414.0</ele><time>2026-04-27T15:16:43.992Z</time></trkpt><trkpt lat="39.47943015368967" lon="8.538812932478487"><ele>414.0</ele><time>2026-04-27T15:16:44.992Z</time></trkpt><trkpt lat="39.47932435383596" lon="8.538762499053426"><ele>417.0</ele><time>2026-04-27T15:16:45.992Z</time></trkpt><trkpt lat="39.47922548409788" lon="8.53871431344105"><ele>420.0</ele><time>2026-04-27T15:16:46.992Z</time></trkpt><trkpt lat="39.47913928152395" lon="8.538669972323266"><ele>423.0</ele><time>2026-04-27T15:16:47.992Z</time></trkpt><trkpt lat="39.479050759006654" lon="8.53866168912555"><ele>426.0</ele><time>2026-04-27T15:16:48.992Z</time></trkpt><trkpt lat="39.47894878304526" lon="8.53863177585184"><ele>429.0</ele><time>2026-04-27T15:16:49.992Z</time></trkpt><trkpt lat="39.47884574972378" lon="8.538608363496547"><ele>428.2</ele><time>2026-04-27T15:16:50.992Z</time></trkpt><trkpt lat="39.47874777569045" lon="8.538596832601716"><ele>427.4</ele><time>2026-04-27T15:16:51.992Z</time></trkpt><trkpt lat="39.478646960919036" lon="8.538642784050012"><ele>426.6</ele><time>2026-04-27T15:16:53.992Z</time></trkpt><trkpt lat="39.47860537113461" lon="8.538712605472059"><ele>425.8</ele><time>2026-04-27T15:16:54.992Z</time></trkpt><trkpt lat="39.47856720947742" lon="8.538806662343909"><ele>425.0</ele><time>2026-04-27T15:16:55.992Z</time></trkpt><trkpt lat="39.478511021232336" lon="8.538938172553086"><ele>425.0</ele><time>2026-04-27T15:16:56.992Z</time></trkpt><trkpt lat="39.4784504170865" lon="8.539061382939527"><ele>425.0</ele><time>2026-04-27T15:16:57.992Z</time></trkpt><trkpt lat="39.47838578991593" lon="8.539183613622264"><ele>425.0</ele><time>2026-04-27T15:16:58.992Z</time></trkpt><trkpt lat="39.478333924070064" lon="8.539318246199702"><ele>425.0</ele><time>2026-04-27T15:16:59.992Z</time></trkpt><trkpt lat="39.47829376505744" lon="8.539456970100254"><ele>423.8</ele><time>2026-04-27T15:17:00.992Z</time></trkpt><trkpt lat="39.478265168263185" lon="8.539602939157039"><ele>422.6</ele><time>2026-04-27T15:17:01.992Z</time></trkpt><trkpt lat="39.47824181148753" lon="8.539724644903886"><ele>421.4</ele><time>2026-04-27T15:17:02.992Z</time></trkpt><trkpt lat="39.478228006653936" lon="8.539847170875124"><ele>420.2</ele><time>2026-04-27T15:17:03.992Z</time></trkpt><trkpt lat="39.47820498563685" lon="8.539964405940317"><ele>419.0</ele><time>2026-04-27T15:17:04.992Z</time></trkpt><trkpt lat="39.4781750082472" lon="8.540037775321768"><ele>418.99999999999994</ele><time>2026-04-27T15:17:05.992Z</time></trkpt><trkpt lat="39.47808857349826" lon="8.540095191464774"><ele>419.0</ele><time>2026-04-27T15:17:07.992Z</time></trkpt><trkpt lat="39.47801719277393" lon="8.540090627586997"><ele>419.0</ele><time>2026-04-27T15:17:08.992Z</time></trkpt><trkpt lat="39.47793805025304" lon="8.540062697101947"><ele>419.0</ele><time>2026-04-27T15:17:09.992Z</time></trkpt><trkpt lat="39.47787166680057" lon="8.539993094187277"><ele>418.99999999999994</ele><time>2026-04-27T15:17:10.992Z</time></trkpt><trkpt lat="39.47781122903164" lon="8.539912377202752"><ele>419.0</ele><time>2026-04-27T15:17:11.992Z</time></trkpt><trkpt lat="39.47775685986858" lon="8.539827961882917"><ele>419.49999999999994</ele><time>2026-04-27T15:17:12.992Z</time></trkpt><trkpt lat="39.47770315741056" lon="8.539735533790514"><ele>420.0</ele><time>2026-04-27T15:17:13.992Z</time></trkpt><trkpt lat="39.4776764670228" lon="8.539643806011291"><ele>420.5</ele><time>2026-04-27T15:17:14.992Z</time></trkpt><trkpt lat="39.47764640772202" lon="8.539532706561353"><ele>421.0</ele><time>2026-04-27T15:17:16.992Z</time></trkpt><trkpt lat="39.47759418633305" lon="8.539479376408481"><ele>421.49999999999994</ele><time>2026-04-27T15:17:48.992Z</time></trkpt><trkpt lat="39.47752440154104" lon="8.5394057432047"><ele>422.0</ele><time>2026-04-27T15:18:47.991Z</time></trkpt><trkpt lat="39.47745338469045" lon="8.539297228979205"><ele>423.49999999999994</ele><time>2026-04-27T15:18:49.991Z</time></trkpt><trkpt lat="39.477402287716856" lon="8.539237382857957"><ele>425.0</ele><time>2026-04-27T15:18:50.991Z</time></trkpt><trkpt lat="39.47735096547546" lon="8.539180127061131"><ele>426.5</ele><time>2026-04-27T15:18:51.991Z</time></trkpt><trkpt lat="39.47729455622356" lon="8.539109982146774"><ele>428.0</ele><time>2026-04-27T15:18:52.991Z</time></trkpt><trkpt lat="39.47723064279113" lon="8.5390590266041"><ele>429.49999999999994</ele><time>2026-04-27T15:18:53.991Z</time></trkpt><trkpt lat="39.477158183401265" lon="8.539002749889944"><ele>431.0</ele><time>2026-04-27T15:18:54.991Z</time></trkpt><trkpt lat="39.47708509676738" lon="8.538946908971807"><ele>430.99999999999994</ele><time>2026-04-27T15:18:55.991Z</time></trkpt><trkpt lat="39.47700431660963" lon="8.538888401702643"><ele>431.0</ele><time>2026-04-27T15:18:56.991Z</time></trkpt><trkpt lat="39.476924165182766" lon="8.538855976392718"><ele>431.0</ele><time>2026-04-27T15:18:57.991Z</time></trkpt><trkpt lat="39.4768614609276" lon="8.538808301877626"><ele>431.0</ele><time>2026-04-27T15:18:58.991Z</time></trkpt><trkpt lat="39.4767973364258" lon="8.538765775287239"><ele>430.99999999999994</ele><time>2026-04-27T15:18:59.991Z</time></trkpt><trkpt lat="39.47673264794754" lon="8.538728939869525"><ele>431.0</ele><time>2026-04-27T15:19:00.991Z</time></trkpt><trkpt lat="39.47663990891028" lon="8.538660442307615"><ele>433.6</ele><time>2026-04-27T15:19:02.991Z</time></trkpt><trkpt lat="39.476555634743136" lon="8.538630908805125"><ele>436.20000000000005</ele><time>2026-04-27T15:19:04.991Z</time></trkpt><trkpt lat="39.476446699789335" lon="8.538598009302616"><ele>438.79999999999995</ele><time>2026-04-27T15:19:06.991Z</time></trkpt><trkpt lat="39.476375721110415" lon="8.538563735178268"><ele>441.4</ele><time>2026-04-27T15:19:07.991Z</time></trkpt><trkpt lat="39.47629850364492" lon="8.53851536809336"><ele>444.0</ele><time>2026-04-27T15:19:08.991Z</time></trkpt><trkpt lat="39.47621904800747" lon="8.538463138874052"><ele>444.0</ele><time>2026-04-27T15:19:09.991Z</time></trkpt><trkpt lat="39.47613845853307" lon="8.538417118188146"><ele>444.0</ele><time>2026-04-27T15:19:10.991Z</time></trkpt><trkpt lat="39.476065880565635" lon="8.538364982507204"><ele>444.0</ele><time>2026-04-27T15:19:11.991Z</time></trkpt><trkpt lat="39.47599759720236" lon="8.538323323781416"><ele>444.0</ele><time>2026-04-27T15:19:12.991Z</time></trkpt><trkpt lat="39.475921202158354" lon="8.538275482405938"><ele>444.0</ele><time>2026-04-27T15:19:13.991Z</time></trkpt><trkpt lat="39.47583861055391" lon="8.538242260380256"><ele>444.0</ele><time>2026-04-27T15:19:14.991Z</time></trkpt><trkpt lat="39.47576299096471" lon="8.538193153635055"><ele>444.0</ele><time>2026-04-27T15:19:15.991Z</time></trkpt><trkpt lat="39.47567981903014" lon="8.538152100970715"><ele>444.0</ele><time>2026-04-27T15:19:16.991Z</time></trkpt><trkpt lat="39.47559816743051" lon="8.538110906832046"><ele>444.0</ele><time>2026-04-27T15:19:17.991Z</time></trkpt><trkpt lat="39.475526435952254" lon="8.538091852850568"><ele>444.0</ele><time>2026-04-27T15:19:18.991Z</time></trkpt><trkpt lat="39.4754559976935" lon="8.538083356253654"><ele>444.0</ele><time>2026-04-27T15:19:19.991Z</time></trkpt><trkpt lat="39.47534413188063" lon="8.538115261929384"><ele>444.0</ele><time>2026-04-27T15:19:21.992Z</time></trkpt><trkpt lat="39.47525159927662" lon="8.538220982319894"><ele>445.0</ele><time>2026-04-27T15:19:23.992Z</time></trkpt><trkpt lat="39.47521394017246" lon="8.538292514003658"><ele>446.0</ele><time>2026-04-27T15:19:24.992Z</time></trkpt><trkpt lat="39.475170830996944" lon="8.538377907648474"><ele>447.0</ele><time>2026-04-27T15:19:25.992Z</time></trkpt><trkpt lat="39.47512838302307" lon="8.538461336318928"><ele>448.0</ele><time>2026-04-27T15:19:26.992Z</time></trkpt><trkpt lat="39.47508423267625" lon="8.538534338414863"><ele>449.0</ele><time>2026-04-27T15:19:27.992Z</time></trkpt><trkpt lat="39.475026540638225" lon="8.53861158013912"><ele>450.0</ele><time>2026-04-27T15:19:28.992Z</time></trkpt><trkpt lat="39.47497746395436" lon="8.538697307799337"><ele>448.8</ele><time>2026-04-27T15:19:29.992Z</time></trkpt><trkpt lat="39.47491892073783" lon="8.538778224354477"><ele>447.6</ele><time>2026-04-27T15:19:30.992Z</time></trkpt><trkpt lat="39.474866327545925" lon="8.53886769509724"><ele>446.4</ele><time>2026-04-27T15:19:31.992Z</time></trkpt><trkpt lat="39.474810659789" lon="8.538965295291373"><ele>445.2</ele><time>2026-04-27T15:19:32.992Z</time></trkpt><trkpt lat="39.47475454702128" lon="8.539067037399867"><ele>444.0</ele><time>2026-04-27T15:19:33.992Z</time></trkpt><trkpt lat="39.474697731245755" lon="8.539170019790763"><ele>444.0</ele><time>2026-04-27T15:19:34.992Z</time></trkpt><trkpt lat="39.47463477445898" lon="8.539283102657677"><ele>444.0</ele><time>2026-04-27T15:19:35.992Z</time></trkpt><trkpt lat="39.47457875735323" lon="8.539393308316509"><ele>444.0</ele><time>2026-04-27T15:19:36.992Z</time></trkpt><trkpt lat="39.47452623940371" lon="8.539512770757241"><ele>444.0</ele><time>2026-04-27T15:19:37.992Z</time></trkpt><trkpt lat="39.47448549381215" lon="8.539631360928148"><ele>444.0</ele><time>2026-04-27T15:19:38.992Z</time></trkpt><trkpt lat="39.47446309733189" lon="8.539743072147994"><ele>445.1666666666667</ele><time>2026-04-27T15:19:39.992Z</time></trkpt><trkpt lat="39.474458202410815" lon="8.539849232556294"><ele>446.33333333333337</ele><time>2026-04-27T15:19:40.992Z</time></trkpt><trkpt lat="39.47446545567337" lon="8.539941959645327"><ele>447.5</ele><time>2026-04-27T15:19:41.992Z</time></trkpt><trkpt lat="39.47444474126962" lon="8.540040084360713"><ele>448.6666666666667</ele><time>2026-04-27T15:19:42.992Z</time></trkpt><trkpt lat="39.47444930887094" lon="8.54020756270561"><ele>449.83333333333337</ele><time>2026-04-27T15:19:44.992Z</time></trkpt><trkpt lat="39.47445028744024" lon="8.54029766835865"><ele>451.0</ele><time>2026-04-27T15:19:45.992Z</time></trkpt><trkpt lat="39.47445054499874" lon="8.540395554498563"><ele>451.00000000000006</ele><time>2026-04-27T15:19:46.992Z</time></trkpt><trkpt lat="39.47446501819686" lon="8.540487734512126"><ele>451.0</ele><time>2026-04-27T15:19:47.992Z</time></trkpt><trkpt lat="39.47446067329644" lon="8.540598761789612"><ele>451.0</ele><time>2026-04-27T15:19:48.992Z</time></trkpt><trkpt lat="39.474457462595275" lon="8.540689934694528"><ele>451.0</ele><time>2026-04-27T15:19:49.992Z</time></trkpt><trkpt lat="39.474458132221294" lon="8.540785742822607"><ele>451.00000000000006</ele><time>2026-04-27T15:19:50.992Z</time></trkpt><trkpt lat="39.47445406027515" lon="8.540892697656833"><ele>451.0</ele><time>2026-04-27T15:19:51.992Z</time></trkpt><trkpt lat="39.47444116290447" lon="8.540992798798207"><ele>451.00000000000006</ele><time>2026-04-27T15:19:52.992Z</time></trkpt><trkpt lat="39.47441974900626" lon="8.541071150238707"><ele>451.0</ele><time>2026-04-27T15:19:53.992Z</time></trkpt><trkpt lat="39.47439295825852" lon="8.541151374346926"><ele>451.0</ele><time>2026-04-27T15:19:54.992Z</time></trkpt><trkpt lat="39.47436586800922" lon="8.541237523293741"><ele>451.0</ele><time>2026-04-27T15:19:55.992Z</time></trkpt><trkpt lat="39.47431331210427" lon="8.541380685678853"><ele>451.00000000000006</ele><time>2026-04-27T15:19:57.992Z</time></trkpt><trkpt lat="39.47428463861667" lon="8.54146071188383"><ele>451.0</ele><time>2026-04-27T15:19:58.992Z</time></trkpt><trkpt lat="39.474262004138716" lon="8.541542404266934"><ele>449.4</ele><time>2026-04-27T15:19:59.992Z</time></trkpt><trkpt lat="39.474229267623606" lon="8.541680707187892"><ele>447.8</ele><time>2026-04-27T15:20:01.992Z</time></trkpt><trkpt lat="39.474181422943836" lon="8.541793411669834"><ele>446.19999999999993</ele><time>2026-04-27T15:20:03.992Z</time></trkpt><trkpt lat="39.4741500515979" lon="8.541919361591003"><ele>444.59999999999997</ele><time>2026-04-27T15:20:05.992Z</time></trkpt><trkpt lat="39.474094825599785" lon="8.542024547410366"><ele>443.0</ele><time>2026-04-27T15:20:07.992Z</time></trkpt><trkpt lat="39.474025962495304" lon="8.542043731301508"><ele>441.42857142857144</ele><time>2026-04-27T15:20:08.992Z</time></trkpt><trkpt lat="39.47396139489355" lon="8.542058734646758"><ele>439.8571428571429</ele><time>2026-04-27T15:20:09.992Z</time></trkpt><trkpt lat="39.47388405755981" lon="8.54207022643351"><ele>438.2857142857143</ele><time>2026-04-27T15:20:10.992Z</time></trkpt><trkpt lat="39.473805153944525" lon="8.54209833544745"><ele>436.7142857142857</ele><time>2026-04-27T15:20:11.992Z</time></trkpt><trkpt lat="39.47373024593619" lon="8.542119488702747"><ele>435.1428571428571</ele><time>2026-04-27T15:20:12.992Z</time></trkpt><trkpt lat="39.473660950193945" lon="8.542131610245026"><ele>433.57142857142856</ele><time>2026-04-27T15:20:13.992Z</time></trkpt><trkpt lat="39.47359508240808" lon="8.542150137364423"><ele>432.0</ele><time>2026-04-27T15:20:14.991Z</time></trkpt><trkpt lat="39.4734753320178" lon="8.542214965963431"><ele>432.0</ele><time>2026-04-27T15:20:16.991Z</time></trkpt><trkpt lat="39.47341846689978" lon="8.54226181753499"><ele>432.0</ele><time>2026-04-27T15:20:17.991Z</time></trkpt><trkpt lat="39.47332042450426" lon="8.542355963488024"><ele>432.0</ele><time>2026-04-27T15:20:19.991Z</time></trkpt><trkpt lat="39.47327118427166" lon="8.542408720285245"><ele>432.0</ele><time>2026-04-27T15:20:20.991Z</time></trkpt><trkpt lat="39.47322309823091" lon="8.542461945741907"><ele>432.0</ele><time>2026-04-27T15:20:21.991Z</time></trkpt><trkpt lat="39.473182068709576" lon="8.54253508394214"><ele>432.0</ele><time>2026-04-27T15:20:22.991Z</time></trkpt><trkpt lat="39.473152841983094" lon="8.54261393357633"><ele>432.0</ele><time>2026-04-27T15:20:23.991Z</time></trkpt><trkpt lat="39.47313357138381" lon="8.54269872897642"><ele>432.00000000000006</ele><time>2026-04-27T15:20:24.991Z</time></trkpt><trkpt lat="39.47311590279144" lon="8.542866992173817"><ele>432.00000000000006</ele><time>2026-04-27T15:20:26.991Z</time></trkpt><trkpt lat="39.473134665120824" lon="8.542951943946772"><ele>432.0</ele><time>2026-04-27T15:20:27.991Z</time></trkpt><trkpt lat="39.473168896033286" lon="8.543034671786712"><ele>432.0</ele><time>2026-04-27T15:20:28.991Z</time></trkpt><trkpt lat="39.473199643832984" lon="8.543198126470962"><ele>431.0</ele><time>2026-04-27T15:20:30.991Z</time></trkpt><trkpt lat="39.473214882816634" lon="8.543279067083166"><ele>430.0</ele><time>2026-04-27T15:20:31.991Z</time></trkpt><trkpt lat="39.473250842070655" lon="8.543364432159455"><ele>429.0</ele><time>2026-04-27T15:20:32.991Z</time></trkpt><trkpt lat="39.47329368814165" lon="8.543465272474636"><ele>428.0</ele><time>2026-04-27T15:20:33.991Z</time></trkpt><trkpt lat="39.47334128033122" lon="8.543559925189719"><ele>427.0</ele><time>2026-04-27T15:20:34.991Z</time></trkpt><trkpt lat="39.473379487475384" lon="8.543647204000978"><ele>426.0</ele><time>2026-04-27T15:20:35.991Z</time></trkpt><trkpt lat="39.47341166391871" lon="8.543740443320651"><ele>426.0</ele><time>2026-04-27T15:20:36.991Z</time></trkpt><trkpt lat="39.47342675952394" lon="8.543833335437977"><ele>426.0</ele><time>2026-04-27T15:20:37.991Z</time></trkpt><trkpt lat="39.47342627587918" lon="8.543932259402604"><ele>426.0</ele><time>2026-04-27T15:20:38.991Z</time></trkpt><trkpt lat="39.47341586626899" lon="8.544022807723707"><ele>426.0</ele><time>2026-04-27T15:20:39.991Z</time></trkpt><trkpt lat="39.47339399881643" lon="8.544117769110022"><ele>426.0</ele><time>2026-04-27T15:20:40.991Z</time></trkpt><trkpt lat="39.47336370384319" lon="8.544219338503012"><ele>426.0</ele><time>2026-04-27T15:20:41.991Z</time></trkpt><trkpt lat="39.473340676299586" lon="8.544325842227897"><ele>426.0</ele><time>2026-04-27T15:20:42.991Z</time></trkpt><trkpt lat="39.47331641540581" lon="8.544434030498596"><ele>426.0</ele><time>2026-04-27T15:20:43.991Z</time></trkpt><trkpt lat="39.473310600203746" lon="8.544542404030977"><ele>426.0</ele><time>2026-04-27T15:20:44.991Z</time></trkpt><trkpt lat="39.47330577933365" lon="8.544654511476503"><ele>426.0</ele><time>2026-04-27T15:20:45.991Z</time></trkpt><trkpt lat="39.473300601696074" lon="8.544756768046028"><ele>426.0</ele><time>2026-04-27T15:20:46.991Z</time></trkpt><trkpt lat="39.473308283959454" lon="8.544859579473956"><ele>426.0</ele><time>2026-04-27T15:20:47.991Z</time></trkpt><trkpt lat="39.47332389564821" lon="8.544970333496082"><ele>425.0</ele><time>2026-04-27T15:20:48.991Z</time></trkpt><trkpt lat="39.473341347659144" lon="8.545077287914221"><ele>424.0</ele><time>2026-04-27T15:20:49.991Z</time></trkpt><trkpt lat="39.47337312699028" lon="8.54518390154356"><ele>423.0</ele><time>2026-04-27T15:20:50.991Z</time></trkpt><trkpt lat="39.47341018824086" lon="8.545284977263153"><ele>422.0</ele><time>2026-04-27T15:20:51.991Z</time></trkpt><trkpt lat="39.47343572020759" lon="8.545369448317947"><ele>421.0</ele><time>2026-04-27T15:20:52.991Z</time></trkpt><trkpt lat="39.47342772138416" lon="8.54552279999481"><ele>420.0</ele><time>2026-04-27T15:20:54.991Z</time></trkpt><trkpt lat="39.47339971248242" lon="8.545627098196835"><ele>419.1666666666667</ele><time>2026-04-27T15:20:55.991Z</time></trkpt><trkpt lat="39.4733775770737" lon="8.54572135731363"><ele>418.33333333333337</ele><time>2026-04-27T15:20:56.991Z</time></trkpt><trkpt lat="39.47335929291076" lon="8.545822746322994"><ele>417.5</ele><time>2026-04-27T15:20:57.991Z</time></trkpt><trkpt lat="39.473344923389426" lon="8.545938036593535"><ele>416.6666666666667</ele><time>2026-04-27T15:20:58.991Z</time></trkpt><trkpt lat="39.4733348567911" lon="8.546054605992985"><ele>415.83333333333337</ele><time>2026-04-27T15:20:59.991Z</time></trkpt><trkpt lat="39.47332811208334" lon="8.546156591022996"><ele>415.0</ele><time>2026-04-27T15:21:00.991Z</time></trkpt><trkpt lat="39.473328411343545" lon="8.546311375655803"><ele>415.0</ele><time>2026-04-27T15:21:02.991Z</time></trkpt><trkpt lat="39.4733259740709" lon="8.54643014919192"><ele>415.0</ele><time>2026-04-27T15:21:04.991Z</time></trkpt><trkpt lat="39.47336958357126" lon="8.546543873384119"><ele>415.0</ele><time>2026-04-27T15:21:06.991Z</time></trkpt><trkpt lat="39.47348725120098" lon="8.54661315106536"><ele>415.0</ele><time>2026-04-27T15:21:08.991Z</time></trkpt><trkpt lat="39.47359190365831" lon="8.546682831879478"><ele>415.0</ele><time>2026-04-27T15:21:10.991Z</time></trkpt><trkpt lat="39.47366881874131" lon="8.546738772932018"><ele>415.00000000000006</ele><time>2026-04-27T15:21:11.991Z</time></trkpt><trkpt lat="39.47373181343451" lon="8.546793328457179"><ele>415.0</ele><time>2026-04-27T15:21:12.991Z</time></trkpt><trkpt lat="39.47379531523709" lon="8.546864474413834"><ele>415.0</ele><time>2026-04-27T15:21:13.991Z</time></trkpt><trkpt lat="39.47386304824201" lon="8.546946571351862"><ele>415.0</ele><time>2026-04-27T15:21:14.991Z</time></trkpt><trkpt lat="39.473927700321084" lon="8.547020492951463"><ele>415.00000000000006</ele><time>2026-04-27T15:21:15.991Z</time></trkpt><trkpt lat="39.47397549681405" lon="8.547090214254881"><ele>415.0</ele><time>2026-04-27T15:21:16.991Z</time></trkpt><trkpt lat="39.47400784457649" lon="8.547230587346322"><ele>414.4</ele><time>2026-04-27T15:21:18.991Z</time></trkpt><trkpt lat="39.474044113750324" lon="8.54737405101984"><ele>413.8</ele><time>2026-04-27T15:21:20.991Z</time></trkpt><trkpt lat="39.47409413639674" lon="8.547460948234075"><ele>413.20000000000005</ele><time>2026-04-27T15:21:21.991Z</time></trkpt><trkpt lat="39.47415416813841" lon="8.547546782585194"><ele>412.6</ele><time>2026-04-27T15:21:22.991Z</time></trkpt><trkpt lat="39.47421033474867" lon="8.547636830627578"><ele>412.0</ele><time>2026-04-27T15:21:23.991Z</time></trkpt><trkpt lat="39.4742792875515" lon="8.54773493739748"><ele>412.00000000000006</ele><time>2026-04-27T15:21:24.991Z</time></trkpt><trkpt lat="39.474343582168274" lon="8.547822433717856"><ele>412.0</ele><time>2026-04-27T15:21:25.991Z</time></trkpt><trkpt lat="39.474385333143246" lon="8.547902995117818"><ele>412.0</ele><time>2026-04-27T15:21:26.991Z</time></trkpt><trkpt lat="39.47440911373409" lon="8.547992587608649"><ele>412.0</ele><time>2026-04-27T15:21:27.991Z</time></trkpt><trkpt lat="39.4744208891647" lon="8.548096446570575"><ele>412.00000000000006</ele><time>2026-04-27T15:21:28.991Z</time></trkpt><trkpt lat="39.474425195998705" lon="8.548196857219962"><ele>412.0</ele><time>2026-04-27T15:21:29.992Z</time></trkpt><trkpt lat="39.47444142650349" lon="8.548353104046994"><ele>413.6</ele><time>2026-04-27T15:21:31.992Z</time></trkpt><trkpt lat="39.47443908582681" lon="8.548470307808168"><ele>415.20000000000005</ele><time>2026-04-27T15:21:32.992Z</time></trkpt><trkpt lat="39.474433342932166" lon="8.548594131784379"><ele>416.8</ele><time>2026-04-27T15:21:33.992Z</time></trkpt><trkpt lat="39.47441910163788" lon="8.548733357822863"><ele>418.4</ele><time>2026-04-27T15:21:34.992Z</time></trkpt><trkpt lat="39.47441622190543" lon="8.548874167525298"><ele>420.0</ele><time>2026-04-27T15:21:35.992Z</time></trkpt><trkpt lat="39.47441282544978" lon="8.548999668527944"><ele>420.0</ele><time>2026-04-27T15:21:36.992Z</time></trkpt><trkpt lat="39.474419997371385" lon="8.549122825458518"><ele>420.0</ele><time>2026-04-27T15:21:37.992Z</time></trkpt><trkpt lat="39.47443766735364" lon="8.549238510198396"><ele>420.0</ele><time>2026-04-27T15:21:38.992Z</time></trkpt><trkpt lat="39.4744933562125" lon="8.54933817822647"><ele>420.0</ele><time>2026-04-27T15:21:40.992Z</time></trkpt><trkpt lat="39.474501024062356" lon="8.549426679720456"><ele>420.0</ele><time>2026-04-27T15:22:22.99Z</time></trkpt><trkpt lat="39.4745308102534" lon="8.54951465973211"><ele>420.0</ele><time>2026-04-27T15:23:04.991Z</time></trkpt><trkpt lat="39.474524291847885" lon="8.549627326588109"><ele>418.8333333333333</ele><time>2026-04-27T15:23:06.991Z</time></trkpt><trkpt lat="39.474513337526915" lon="8.549737062447894"><ele>417.66666666666663</ele><time>2026-04-27T15:23:09.991Z</time></trkpt><trkpt lat="39.47448966504555" lon="8.549819127735189"><ele>416.5</ele><time>2026-04-27T15:23:11.991Z</time></trkpt><trkpt lat="39.47447488047997" lon="8.549901328844616"><ele>415.3333333333333</ele><time>2026-04-27T15:23:13.991Z</time></trkpt><trkpt lat="39.47445419047815" lon="8.549997141296489"><ele>414.16666666666663</ele><time>2026-04-27T15:23:15.991Z</time></trkpt><trkpt lat="39.47441811598439" lon="8.550108038016015"><ele>413.0</ele><time>2026-04-27T15:23:17.991Z</time></trkpt><trkpt lat="39.47436024859052" lon="8.55018817062269"><ele>412.99999999999994</ele><time>2026-04-27T15:23:19.991Z</time></trkpt><trkpt lat="39.474272896382" lon="8.550206798775982"><ele>413.0</ele><time>2026-04-27T15:23:21.991Z</time></trkpt><trkpt lat="39.47423662920609" lon="8.55028732539137"><ele>413.0</ele><time>2026-04-27T15:23:23.991Z</time></trkpt><trkpt lat="39.47420122983161" lon="8.550357924332397"><ele>413.0</ele><time>2026-04-27T15:23:24.991Z</time></trkpt><trkpt lat="39.47412213848766" lon="8.550477100938114"><ele>412.99999999999994</ele><time>2026-04-27T15:23:26.991Z</time></trkpt><trkpt lat="39.47406780162844" lon="8.550518735676588"><ele>413.0</ele><time>2026-04-27T15:23:27.991Z</time></trkpt><trkpt lat="39.47401989432589" lon="8.550595215120866"><ele>412.49999999999994</ele><time>2026-04-27T15:23:28.991Z</time></trkpt><trkpt lat="39.473917213061" lon="8.550677541456494"><ele>412.0</ele><time>2026-04-27T15:23:30.991Z</time></trkpt><trkpt lat="39.473855537262835" lon="8.55069614211337"><ele>411.5</ele><time>2026-04-27T15:23:31.991Z</time></trkpt><trkpt lat="39.47377698856476" lon="8.550723151710393"><ele>411.0</ele><time>2026-04-27T15:23:32.991Z</time></trkpt><trkpt lat="39.47371066375628" lon="8.550719162055417"><ele>410.49999999999994</ele><time>2026-04-27T15:23:33.991Z</time></trkpt><trkpt lat="39.47359913507023" lon="8.550698465565734"><ele>410.0</ele><time>2026-04-27T15:23:35.991Z</time></trkpt><trkpt lat="39.47350121925128" lon="8.550731242617823"><ele>409.99999999999994</ele><time>2026-04-27T15:23:37.991Z</time></trkpt><trkpt lat="39.473456497913546" lon="8.550801688346043"><ele>410.0</ele><time>2026-04-27T15:23:38.991Z</time></trkpt><trkpt lat="39.47340782095642" lon="8.550866496971684"><ele>410.0</ele><time>2026-04-27T15:23:39.991Z</time></trkpt><trkpt lat="39.473355678286204" lon="8.550942260521067"><ele>410.0</ele><time>2026-04-27T15:23:40.991Z</time></trkpt><trkpt lat="39.47330939718305" lon="8.550998508707398"><ele>409.99999999999994</ele><time>2026-04-27T15:23:41.991Z</time></trkpt><trkpt lat="39.473271905383626" lon="8.551073582017398"><ele>410.0</ele><time>2026-04-27T15:23:42.991Z</time></trkpt><trkpt lat="39.473218976730244" lon="8.551219247130996"><ele>407.4</ele><time>2026-04-27T15:23:44.991Z</time></trkpt><trkpt lat="39.47320313934052" lon="8.551331038662433"><ele>404.8</ele><time>2026-04-27T15:23:45.991Z</time></trkpt><trkpt lat="39.47319790085525" lon="8.551448862426374"><ele>402.20000000000005</ele><time>2026-04-27T15:23:46.991Z</time></trkpt><trkpt lat="39.47321250376048" lon="8.55155932253164"><ele>399.6</ele><time>2026-04-27T15:23:47.991Z</time></trkpt><trkpt lat="39.473221143215916" lon="8.551669765556735"><ele>397.0</ele><time>2026-04-27T15:23:48.991Z</time></trkpt><trkpt lat="39.473241924291095" lon="8.551822278266878"><ele>397.00000000000006</ele><time>2026-04-27T15:23:49.991Z</time></trkpt><trkpt lat="39.473249153263794" lon="8.551905567225857"><ele>397.0</ele><time>2026-04-27T15:23:50.991Z</time></trkpt><trkpt lat="39.473238456500525" lon="8.552047133338775"><ele>397.0</ele><time>2026-04-27T15:23:52.991Z</time></trkpt><trkpt lat="39.47318268081263" lon="8.552127593413699"><ele>397.0</ele><time>2026-04-27T15:23:54.991Z</time></trkpt><trkpt lat="39.47308861640078" lon="8.552130035349732"><ele>397.00000000000006</ele><time>2026-04-27T15:23:56.991Z</time></trkpt><trkpt lat="39.473004827835396" lon="8.55213399476247"><ele>397.0</ele><time>2026-04-27T15:23:58.991Z</time></trkpt><trkpt lat="39.47295153334568" lon="8.55218978966947"><ele>394.83333333333337</ele><time>2026-04-27T15:24:01.991Z</time></trkpt><trkpt lat="39.47295536121942" lon="8.552291677742067"><ele>392.6666666666667</ele><time>2026-04-27T15:24:04.991Z</time></trkpt><trkpt lat="39.47302377195147" lon="8.55238001546189"><ele>390.5</ele><time>2026-04-27T15:24:06.991Z</time></trkpt><trkpt lat="39.473089013387124" lon="8.552430864819618"><ele>388.33333333333337</ele><time>2026-04-27T15:24:07.991Z</time></trkpt><trkpt lat="39.473145449218656" lon="8.55248749692708"><ele>386.1666666666667</ele><time>2026-04-27T15:24:08.991Z</time></trkpt><trkpt lat="39.47324605939007" lon="8.552531353173805"><ele>384.0</ele><time>2026-04-27T15:24:10.991Z</time></trkpt><trkpt lat="39.473343382878404" lon="8.55258207184726"><ele>384.0</ele><time>2026-04-27T15:24:13.991Z</time></trkpt><trkpt lat="39.473410984248275" lon="8.552634989509466"><ele>384.0</ele><time>2026-04-27T15:24:14.991Z</time></trkpt><trkpt lat="39.47351658519002" lon="8.552738971787312"><ele>384.0</ele><time>2026-04-27T15:24:16.991Z</time></trkpt><trkpt lat="39.47355905766344" lon="8.552801578307783"><ele>384.0</ele><time>2026-04-27T15:24:18.991Z</time></trkpt><trkpt lat="39.47353543078232" lon="8.55292976705231"><ele>384.0</ele><time>2026-04-27T15:24:20.991Z</time></trkpt><trkpt lat="39.47345737923624" lon="8.553000494551716"><ele>381.4</ele><time>2026-04-27T15:24:22.991Z</time></trkpt><trkpt lat="39.473362290023765" lon="8.55307819950907"><ele>378.79999999999995</ele><time>2026-04-27T15:24:24.991Z</time></trkpt><trkpt lat="39.4732917123234" lon="8.55316217513169"><ele>376.20000000000005</ele><time>2026-04-27T15:24:26.991Z</time></trkpt><trkpt lat="39.47323759654176" lon="8.553236407962608"><ele>373.6</ele><time>2026-04-27T15:24:28.991Z</time></trkpt><trkpt lat="39.473168497317594" lon="8.55332902651299"><ele>371.0</ele><time>2026-04-27T15:24:30.99Z</time></trkpt><trkpt lat="39.473113027834756" lon="8.553412627521837"><ele>371.0</ele><time>2026-04-27T15:24:34.99Z</time></trkpt><trkpt lat="39.47303917695572" lon="8.553510613350005"><ele>371.0</ele><time>2026-04-27T15:24:37.991Z</time></trkpt><trkpt lat="39.47297584957974" lon="8.553577068774063"><ele>371.0</ele><time>2026-04-27T15:24:39.99Z</time></trkpt><trkpt lat="39.47293216166919" lon="8.553734312709576"><ele>371.0</ele><time>2026-04-27T15:24:41.99Z</time></trkpt><trkpt lat="39.47290723741842" lon="8.553858502975487"><ele>371.0</ele><time>2026-04-27T15:24:43.99Z</time></trkpt><trkpt lat="39.47290471082741" lon="8.553983431252872"><ele>368.5</ele><time>2026-04-27T15:24:45.99Z</time></trkpt><trkpt lat="39.47289656367951" lon="8.554065715631332"><ele>366.0</ele><time>2026-04-27T15:24:46.99Z</time></trkpt><trkpt lat="39.47288268402431" lon="8.554168748949108"><ele>363.5</ele><time>2026-04-27T15:24:48.99Z</time></trkpt><trkpt lat="39.47281714702968" lon="8.554258414261042"><ele>361.0</ele><time>2026-04-27T15:24:50.99Z</time></trkpt><trkpt lat="39.47276126433748" lon="8.554326767322774"><ele>358.5</ele><time>2026-04-27T15:24:52.99Z</time></trkpt><trkpt lat="39.4727276637288" lon="8.554399944658524"><ele>356.0</ele><time>2026-04-27T15:24:53.99Z</time></trkpt><trkpt lat="39.47269104206551" lon="8.554498207515774"><ele>354.0</ele><time>2026-04-27T15:24:54.991Z</time></trkpt><trkpt lat="39.472664729786395" lon="8.554581110750387"><ele>352.0</ele><time>2026-04-27T15:24:55.991Z</time></trkpt><trkpt lat="39.472626620996984" lon="8.554714765543563"><ele>350.0</ele><time>2026-04-27T15:24:57.991Z</time></trkpt><trkpt lat="39.472584369533756" lon="8.554894934527555"><ele>348.0</ele><time>2026-04-27T15:24:59.991Z</time></trkpt><trkpt lat="39.47257594524885" lon="8.55497685674376"><ele>346.0</ele><time>2026-04-27T15:25:00.991Z</time></trkpt><trkpt lat="39.47256468203863" lon="8.55506578233836"><ele>346.0</ele><time>2026-04-27T15:25:01.991Z</time></trkpt><trkpt lat="39.47254809037656" lon="8.5551632183776"><ele>346.0</ele><time>2026-04-27T15:25:02.991Z</time></trkpt><trkpt lat="39.47253514443338" lon="8.555257253476888"><ele>346.0</ele><time>2026-04-27T15:25:03.991Z</time></trkpt><trkpt lat="39.47251769454475" lon="8.555394933696027"><ele>346.0</ele><time>2026-04-27T15:25:05.991Z</time></trkpt><trkpt lat="39.47250875632312" lon="8.555520297438092"><ele>346.0</ele><time>2026-04-27T15:25:07.991Z</time></trkpt><trkpt lat="39.47251496104864" lon="8.555634925566741"><ele>346.0</ele><time>2026-04-27T15:25:09.991Z</time></trkpt><trkpt lat="39.47256049613158" lon="8.55570921934921"><ele>344.20000000000005</ele><time>2026-04-27T15:25:11.991Z</time></trkpt><trkpt lat="39.47262676501184" lon="8.555768016688669"><ele>342.40000000000003</ele><time>2026-04-27T15:25:14.991Z</time></trkpt><trkpt lat="39.47264253952518" lon="8.555887211124789"><ele>340.6</ele><time>2026-04-27T15:25:17.991Z</time></trkpt><trkpt lat="39.47267198611881" lon="8.55604939847732"><ele>338.8</ele><time>2026-04-27T15:25:19.991Z</time></trkpt><trkpt lat="39.47268201267106" lon="8.556135730676461"><ele>337.0</ele><time>2026-04-27T15:25:20.991Z</time></trkpt><trkpt lat="39.47270298016076" lon="8.556247466806052"><ele>335.66666666666663</ele><time>2026-04-27T15:25:21.991Z</time></trkpt><trkpt lat="39.47272389576992" lon="8.556354153957914"><ele>334.3333333333333</ele><time>2026-04-27T15:25:22.991Z</time></trkpt><trkpt lat="39.472739983211056" lon="8.556445761410398"><ele>333.0</ele><time>2026-04-27T15:25:23.991Z</time></trkpt><trkpt lat="39.47276322497638" lon="8.556547808557786"><ele>331.6666666666667</ele><time>2026-04-27T15:25:24.991Z</time></trkpt><trkpt lat="39.47279203223548" lon="8.556646284963287"><ele>330.33333333333337</ele><time>2026-04-27T15:25:25.991Z</time></trkpt><trkpt lat="39.472822409734974" lon="8.5567287091837"><ele>329.0</ele><time>2026-04-27T15:25:26.991Z</time></trkpt><trkpt lat="39.47285672547108" lon="8.55683073548687"><ele>329.0</ele><time>2026-04-27T15:25:27.991Z</time></trkpt><trkpt lat="39.47288247417984" lon="8.556909458398977"><ele>329.0</ele><time>2026-04-27T15:25:28.991Z</time></trkpt><trkpt lat="39.47292643857533" lon="8.556993273838165"><ele>329.0</ele><time>2026-04-27T15:25:29.991Z</time></trkpt><trkpt lat="39.47297299383103" lon="8.557101866878078"><ele>329.0</ele><time>2026-04-27T15:25:30.991Z</time></trkpt><trkpt lat="39.472995261043174" lon="8.557196361201617"><ele>329.0</ele><time>2026-04-27T15:25:31.991Z</time></trkpt><trkpt lat="39.473028310119005" lon="8.55729094516474"><ele>329.0</ele><time>2026-04-27T15:25:32.991Z</time></trkpt><trkpt lat="39.4730730283945" lon="8.55742867451562"><ele>328.33333333333337</ele><time>2026-04-27T15:25:34.991Z</time></trkpt><trkpt lat="39.47311103673428" lon="8.557555074228578"><ele>327.6666666666667</ele><time>2026-04-27T15:25:36.991Z</time></trkpt><trkpt lat="39.47307684498756" lon="8.557653896128217"><ele>327.0</ele><time>2026-04-27T15:25:38.991Z</time></trkpt><trkpt lat="39.47299333459995" lon="8.557665657206181"><ele>326.3333333333333</ele><time>2026-04-27T15:25:40.991Z</time></trkpt><trkpt lat="39.47293224471649" lon="8.557685487667934"><ele>325.66666666666663</ele><time>2026-04-27T15:25:41.991Z</time></trkpt><trkpt lat="39.472892350837334" lon="8.557784704939372"><ele>325.0</ele><time>2026-04-27T15:25:43.991Z</time></trkpt><trkpt lat="39.472915529234776" lon="8.557915681918352"><ele>323.5</ele><time>2026-04-27T15:25:45.991Z</time></trkpt><trkpt lat="39.47291272071935" lon="8.55805504148265"><ele>322.0</ele><time>2026-04-27T15:25:47.991Z</time></trkpt><trkpt lat="39.472913033642726" lon="8.558147375063799"><ele>320.5</ele><time>2026-04-27T15:25:48.991Z</time></trkpt><trkpt lat="39.472916112457966" lon="8.558251314567903"><ele>319.0</ele><time>2026-04-27T15:25:49.991Z</time></trkpt><trkpt lat="39.4729308203747" lon="8.5583617140903"><ele>317.5</ele><time>2026-04-27T15:25:50.991Z</time></trkpt><trkpt lat="39.472961797493596" lon="8.558473096107047"><ele>316.0</ele><time>2026-04-27T15:25:51.991Z</time></trkpt><trkpt lat="39.47299627238632" lon="8.558587135340497"><ele>316.0</ele><time>2026-04-27T15:25:52.991Z</time></trkpt><trkpt lat="39.47303015883266" lon="8.558691081790561"><ele>316.0</ele><time>2026-04-27T15:25:53.991Z</time></trkpt><trkpt lat="39.47305746384999" lon="8.558792082190404"><ele>316.0</ele><time>2026-04-27T15:25:54.991Z</time></trkpt><trkpt lat="39.473069181839776" lon="8.558893758434198"><ele>316.0</ele><time>2026-04-27T15:25:55.991Z</time></trkpt><trkpt lat="39.47306895107938" lon="8.558988364372983"><ele>316.0</ele><time>2026-04-27T15:25:56.991Z</time></trkpt><trkpt lat="39.47306782102624" lon="8.559114494154311"><ele>316.0</ele><time>2026-04-27T15:25:58.991Z</time></trkpt><trkpt lat="39.473071273401914" lon="8.559214235314892"><ele>315.66666666666663</ele><time>2026-04-27T15:26:00.991Z</time></trkpt><trkpt lat="39.47300925907512" lon="8.559238441254438"><ele>315.3333333333333</ele><time>2026-04-27T15:26:05.991Z</time></trkpt><trkpt lat="39.47296537766683" lon="8.559142829232893"><ele>315.0</ele><time>2026-04-27T15:26:07.991Z</time></trkpt><trkpt lat="39.4729121475703" lon="8.559063295214948"><ele>314.6666666666667</ele><time>2026-04-27T15:26:08.991Z</time></trkpt><trkpt lat="39.47285107035531" lon="8.558980552434557"><ele>314.33333333333337</ele><time>2026-04-27T15:26:09.991Z</time></trkpt><trkpt lat="39.47280841481391" lon="8.558909296820325"><ele>314.0</ele><time>2026-04-27T15:26:10.991Z</time></trkpt><trkpt lat="39.472750421598754" lon="8.558818972169302"><ele>314.4</ele><time>2026-04-27T15:26:11.991Z</time></trkpt><trkpt lat="39.472686087517346" lon="8.558706371336081"><ele>314.79999999999995</ele><time>2026-04-27T15:26:12.991Z</time></trkpt><trkpt lat="39.472620171001324" lon="8.558588225568396"><ele>315.20000000000005</ele><time>2026-04-27T15:26:13.991Z</time></trkpt><trkpt lat="39.47255610977815" lon="8.558478288725752"><ele>315.6</ele><time>2026-04-27T15:26:14.991Z</time></trkpt><trkpt lat="39.47248501901995" lon="8.558376951637303"><ele>316.0</ele><time>2026-04-27T15:26:15.991Z</time></trkpt><trkpt lat="39.472419323388856" lon="8.558278922787661"><ele>316.0</ele><time>2026-04-27T15:26:16.991Z</time></trkpt><trkpt lat="39.472353879120874" lon="8.558186697926374"><ele>316.0</ele><time>2026-04-27T15:26:17.991Z</time></trkpt><trkpt lat="39.472279127968086" lon="8.558108522798191"><ele>316.0</ele><time>2026-04-27T15:26:18.991Z</time></trkpt><trkpt lat="39.47220171055013" lon="8.55804394958519"><ele>316.0</ele><time>2026-04-27T15:26:19.991Z</time></trkpt><trkpt lat="39.47212010679191" lon="8.557991990138952"><ele>316.0</ele><time>2026-04-27T15:26:20.991Z</time></trkpt><trkpt lat="39.47202778870909" lon="8.55793497176422"><ele>317.0</ele><time>2026-04-27T15:26:21.991Z</time></trkpt><trkpt lat="39.471929002064336" lon="8.557881340394855"><ele>318.0</ele><time>2026-04-27T15:26:22.991Z</time></trkpt><trkpt lat="39.47184519331942" lon="8.557792938978611"><ele>319.0</ele><time>2026-04-27T15:26:23.991Z</time></trkpt><trkpt lat="39.47175818252959" lon="8.557720982900072"><ele>320.0</ele><time>2026-04-27T15:26:24.991Z</time></trkpt><trkpt lat="39.4716767903678" lon="8.557658209968068"><ele>321.0</ele><time>2026-04-27T15:26:25.991Z</time></trkpt><trkpt lat="39.471605619205896" lon="8.557565167064364"><ele>321.0</ele><time>2026-04-27T15:26:26.991Z</time></trkpt><trkpt lat="39.47153987971344" lon="8.557474373866933"><ele>321.0</ele><time>2026-04-27T15:26:27.991Z</time></trkpt><trkpt lat="39.47147401300498" lon="8.557383424664536"><ele>321.0</ele><time>2026-04-27T15:26:28.991Z</time></trkpt><trkpt lat="39.47139423200489" lon="8.557289176357525"><ele>321.0</ele><time>2026-04-27T15:26:29.991Z</time></trkpt><trkpt lat="39.47131324210643" lon="8.55720438448115"><ele>321.0</ele><time>2026-04-27T15:26:30.991Z</time></trkpt><trkpt lat="39.47120578084492" lon="8.557136588591419"><ele>322.8</ele><time>2026-04-27T15:26:31.991Z</time></trkpt><trkpt lat="39.47111485543309" lon="8.557065033608557"><ele>324.6</ele><time>2026-04-27T15:26:32.99Z</time></trkpt><trkpt lat="39.4710329656133" lon="8.556979868832732"><ele>326.4</ele><time>2026-04-27T15:26:33.99Z</time></trkpt><trkpt lat="39.470948840038965" lon="8.556901474810282"><ele>328.2</ele><time>2026-04-27T15:26:34.99Z</time></trkpt><trkpt lat="39.47086980305378" lon="8.556818764787758"><ele>330.0</ele><time>2026-04-27T15:26:35.99Z</time></trkpt><trkpt lat="39.470783038457164" lon="8.556746644394327"><ele>330.0</ele><time>2026-04-27T15:26:36.99Z</time></trkpt><trkpt lat="39.47070476530774" lon="8.556678263051527"><ele>330.0</ele><time>2026-04-27T15:26:37.99Z</time></trkpt><trkpt lat="39.47062376580261" lon="8.5566321713712"><ele>330.0</ele><time>2026-04-27T15:26:38.99Z</time></trkpt><trkpt lat="39.470549027972496" lon="8.556596941346488"><ele>330.0</ele><time>2026-04-27T15:26:39.99Z</time></trkpt><trkpt lat="39.470439511721366" lon="8.556552272150075"><ele>330.0</ele><time>2026-04-27T15:26:41.99Z</time></trkpt><trkpt lat="39.47037480238936" lon="8.556552550379282"><ele>330.0</ele><time>2026-04-27T15:26:42.99Z</time></trkpt><trkpt lat="39.470273358961066" lon="8.556655499393031"><ele>333.2</ele><time>2026-04-27T15:26:44.99Z</time></trkpt><trkpt lat="39.47022238339247" lon="8.556737268742433"><ele>336.4</ele><time>2026-04-27T15:26:45.99Z</time></trkpt><trkpt lat="39.470165405174356" lon="8.556837741842942"><ele>339.6</ele><time>2026-04-27T15:26:46.99Z</time></trkpt><trkpt lat="39.470107201960936" lon="8.556950528258499"><ele>342.8</ele><time>2026-04-27T15:26:47.99Z</time></trkpt><trkpt lat="39.47004207872116" lon="8.557045815712845"><ele>346.0</ele><time>2026-04-27T15:26:48.99Z</time></trkpt><trkpt lat="39.46995948058479" lon="8.55710356169216"><ele>346.66666666666663</ele><time>2026-04-27T15:26:49.99Z</time></trkpt><trkpt lat="39.46989283464534" lon="8.557166062244985"><ele>347.3333333333333</ele><time>2026-04-27T15:26:50.99Z</time></trkpt><trkpt lat="39.46982932896306" lon="8.55723180673234"><ele>348.0</ele><time>2026-04-27T15:26:51.99Z</time></trkpt><trkpt lat="39.46975631966179" lon="8.557287105913643"><ele>348.6666666666667</ele><time>2026-04-27T15:26:52.99Z</time></trkpt><trkpt lat="39.46968559000903" lon="8.55736050437073"><ele>349.33333333333337</ele><time>2026-04-27T15:26:53.99Z</time></trkpt><trkpt lat="39.469618213453295" lon="8.557406548762481"><ele>350.0</ele><time>2026-04-27T15:26:54.99Z</time></trkpt><trkpt lat="39.46954725575248" lon="8.557437694722264"><ele>350.4</ele><time>2026-04-27T15:26:55.99Z</time></trkpt><trkpt lat="39.46948911729423" lon="8.557474333070958"><ele>350.8</ele><time>2026-04-27T15:26:56.99Z</time></trkpt><trkpt lat="39.4694342218448" lon="8.557617089856931"><ele>351.20000000000005</ele><time>2026-04-27T15:26:58.99Z</time></trkpt><trkpt lat="39.469392773053634" lon="8.557747658547502"><ele>351.6</ele><time>2026-04-27T15:27:00.99Z</time></trkpt><trkpt lat="39.46930071887183" lon="8.557761845364658"><ele>352.0</ele><time>2026-04-27T15:27:02.99Z</time></trkpt><trkpt lat="39.46917801122346" lon="8.557766822027256"><ele>352.0</ele><time>2026-04-27T15:27:04.99Z</time></trkpt><trkpt lat="39.46910715664503" lon="8.55772783241273"><ele>352.0</ele><time>2026-04-27T15:27:05.99Z</time></trkpt><trkpt lat="39.469032501928325" lon="8.557719397637381"><ele>352.0</ele><time>2026-04-27T15:27:06.99Z</time></trkpt><trkpt lat="39.468954384999904" lon="8.557707615306672"><ele>352.0</ele><time>2026-04-27T15:27:07.99Z</time></trkpt><trkpt lat="39.46888226882328" lon="8.55769781681257"><ele>352.0</ele><time>2026-04-27T15:27:08.99Z</time></trkpt><trkpt lat="39.46880717202584" lon="8.557705810947006"><ele>352.0</ele><time>2026-04-27T15:27:09.99Z</time></trkpt><trkpt lat="39.46871117427469" lon="8.55779843237162"><ele>354.0</ele><time>2026-04-27T15:27:11.99Z</time></trkpt><trkpt lat="39.46865994933706" lon="8.557846140909659"><ele>356.0</ele><time>2026-04-27T15:27:12.99Z</time></trkpt><trkpt lat="39.468629512563176" lon="8.557977999131547"><ele>358.0</ele><time>2026-04-27T15:27:14.99Z</time></trkpt><trkpt lat="39.46863936091036" lon="8.558090746978788"><ele>360.0</ele><time>2026-04-27T15:27:16.99Z</time></trkpt><trkpt lat="39.468603237841855" lon="8.558178478947063"><ele>362.0</ele><time>2026-04-27T15:27:18.99Z</time></trkpt><trkpt lat="39.46856988628682" lon="8.558262062321262"><ele>364.0</ele><time>2026-04-27T15:27:20.99Z</time></trkpt><trkpt lat="39.46847058992722" lon="8.558344508899387"><ele>364.0</ele><time>2026-04-27T15:27:22.99Z</time></trkpt><trkpt lat="39.46840322563722" lon="8.55835286417967"><ele>364.0</ele><time>2026-04-27T15:27:23.99Z</time></trkpt><trkpt lat="39.46833970101468" lon="8.558355634431816"><ele>364.0</ele><time>2026-04-27T15:27:24.99Z</time></trkpt><trkpt lat="39.468221679027174" lon="8.558324757595434"><ele>364.0</ele><time>2026-04-27T15:27:26.99Z</time></trkpt><trkpt lat="39.468161130504505" lon="8.558210270342318"><ele>364.0</ele><time>2026-04-27T15:27:28.99Z</time></trkpt><trkpt lat="39.46806860663027" lon="8.558194812693891"><ele>364.0</ele><time>2026-04-27T15:27:31.99Z</time></trkpt><trkpt lat="39.467982481967326" lon="8.55824329854433"><ele>364.0</ele><time>2026-04-27T15:27:33.99Z</time></trkpt><trkpt lat="39.467955514935205" lon="8.55833445645446"><ele>364.0</ele><time>2026-04-27T15:27:34.99Z</time></trkpt><trkpt lat="39.46791740973918" lon="8.55840950973085"><ele>364.0</ele><time>2026-04-27T15:27:35.99Z</time></trkpt><trkpt lat="39.46782480466077" lon="8.5585158209285"><ele>364.0</ele><time>2026-04-27T15:27:37.99Z</time></trkpt><trkpt lat="39.46777948252652" lon="8.558580539695514"><ele>364.0</ele><time>2026-04-27T15:27:38.99Z</time></trkpt><trkpt lat="39.46772393404521" lon="8.558623500295422"><ele>367.3333333333333</ele><time>2026-04-27T15:27:39.99Z</time></trkpt><trkpt lat="39.46766283602372" lon="8.558678662568871"><ele>370.66666666666663</ele><time>2026-04-27T15:27:40.99Z</time></trkpt><trkpt lat="39.46757183655642" lon="8.558763645131322"><ele>374.0</ele><time>2026-04-27T15:27:42.99Z</time></trkpt><trkpt lat="39.467524086660724" lon="8.558827757142156"><ele>377.3333333333333</ele><time>2026-04-27T15:27:43.99Z</time></trkpt><trkpt lat="39.46748246547583" lon="8.558911226345195"><ele>380.6666666666667</ele><time>2026-04-27T15:27:44.99Z</time></trkpt><trkpt lat="39.46745975335078" lon="8.559012509016412"><ele>384.0</ele><time>2026-04-27T15:27:45.99Z</time></trkpt><trkpt lat="39.46741849177931" lon="8.559143404487639"><ele>384.0</ele><time>2026-04-27T15:27:47.99Z</time></trkpt><trkpt lat="39.46738045957452" lon="8.559231409313202"><ele>384.0</ele><time>2026-04-27T15:27:48.99Z</time></trkpt><trkpt lat="39.467344043945054" lon="8.559310523983612"><ele>384.0</ele><time>2026-04-27T15:27:49.99Z</time></trkpt><trkpt lat="39.467324880123776" lon="8.559390584862543"><ele>384.0</ele><time>2026-04-27T15:27:50.99Z</time></trkpt><trkpt lat="39.46725593321005" lon="8.559537869980652"><ele>384.0</ele><time>2026-04-27T15:27:52.99Z</time></trkpt><trkpt lat="39.46720754715578" lon="8.559618508825352"><ele>384.0</ele><time>2026-04-27T15:27:53.99Z</time></trkpt><trkpt lat="39.46716456641703" lon="8.559682135844765"><ele>385.5</ele><time>2026-04-27T15:27:54.99Z</time></trkpt><trkpt lat="39.467087780904514" lon="8.559818085206055"><ele>387.0</ele><time>2026-04-27T15:27:56.99Z</time></trkpt><trkpt lat="39.46704092015073" lon="8.559891187217671"><ele>388.5</ele><time>2026-04-27T15:27:57.99Z</time></trkpt><trkpt lat="39.467011321512054" lon="8.55997780360426"><ele>390.0</ele><time>2026-04-27T15:27:58.99Z</time></trkpt><trkpt lat="39.46699030777779" lon="8.56005591360574"><ele>391.5</ele><time>2026-04-27T15:27:59.99Z</time></trkpt><trkpt lat="39.46696859536763" lon="8.560147634741773"><ele>393.0</ele><time>2026-04-27T15:28:00.99Z</time></trkpt><trkpt lat="39.46694851717579" lon="8.560243308201526"><ele>393.0</ele><time>2026-04-27T15:28:01.99Z</time></trkpt><trkpt lat="39.46693147354363" lon="8.560348867423425"><ele>393.0</ele><time>2026-04-27T15:28:02.99Z</time></trkpt><trkpt lat="39.46692103651894" lon="8.560457432249882"><ele>393.0</ele><time>2026-04-27T15:28:03.99Z</time></trkpt><trkpt lat="39.46691935459663" lon="8.560550713586148"><ele>393.0</ele><time>2026-04-27T15:28:04.99Z</time></trkpt><trkpt lat="39.466918024607374" lon="8.5606356523519"><ele>393.0</ele><time>2026-04-27T15:28:05.99Z</time></trkpt><trkpt lat="39.46689656984611" lon="8.560745633343341"><ele>393.0</ele><time>2026-04-27T15:28:07.99Z</time></trkpt><trkpt lat="39.466785743440276" lon="8.560783453391034"><ele>395.2</ele><time>2026-04-27T15:28:09.99Z</time></trkpt><trkpt lat="39.46668632372125" lon="8.560755741642458"><ele>397.4</ele><time>2026-04-27T15:28:11.99Z</time></trkpt><trkpt lat="39.466590898865896" lon="8.560791561466536"><ele>399.59999999999997</ele><time>2026-04-27T15:28:13.99Z</time></trkpt><trkpt lat="39.46648601491769" lon="8.560814433025742"><ele>401.79999999999995</ele><time>2026-04-27T15:28:15.99Z</time></trkpt><trkpt lat="39.46639050341111" lon="8.560828125353893"><ele>404.0</ele><time>2026-04-27T15:28:17.99Z</time></trkpt><trkpt lat="39.466323333043945" lon="8.56083019794095"><ele>404.79999999999995</ele><time>2026-04-27T15:28:18.99Z</time></trkpt><trkpt lat="39.46621375624594" lon="8.560804254123656"><ele>405.59999999999997</ele><time>2026-04-27T15:28:20.99Z</time></trkpt><trkpt lat="39.46612511177618" lon="8.560811846881922"><ele>406.4</ele><time>2026-04-27T15:28:22.99Z</time></trkpt><trkpt lat="39.46604008091035" lon="8.560833931535937"><ele>407.2</ele><time>2026-04-27T15:28:24.991Z</time></trkpt><trkpt lat="39.46600748539005" lon="8.560932180031067"><ele>408.0</ele><time>2026-04-27T15:28:26.991Z</time></trkpt><trkpt lat="39.46595099791586" lon="8.561010766902335"><ele>408.0</ele><time>2026-04-27T15:28:28.991Z</time></trkpt><trkpt lat="39.465848146214256" lon="8.561007950738569"><ele>408.0</ele><time>2026-04-27T15:28:30.991Z</time></trkpt><trkpt lat="39.465766279900954" lon="8.561003364923945"><ele>408.0</ele><time>2026-04-27T15:28:32.991Z</time></trkpt><trkpt lat="39.465730301865946" lon="8.561082946366914"><ele>408.0</ele><time>2026-04-27T15:28:34.991Z</time></trkpt><trkpt lat="39.465757632859486" lon="8.561229001646318"><ele>408.0</ele><time>2026-04-27T15:28:36.991Z</time></trkpt><trkpt lat="39.46578888394285" lon="8.56131841336168"><ele>408.0</ele><time>2026-04-27T15:28:37.991Z</time></trkpt><trkpt lat="39.46581429105912" lon="8.56141385300575"><ele>410.6666666666667</ele><time>2026-04-27T15:28:38.99Z</time></trkpt><trkpt lat="39.46583597297057" lon="8.561507070669252"><ele>413.33333333333337</ele><time>2026-04-27T15:28:39.99Z</time></trkpt><trkpt lat="39.465839004348865" lon="8.56158911037054"><ele>416.0</ele><time>2026-04-27T15:28:40.99Z</time></trkpt><trkpt lat="39.46583188469001" lon="8.561679871116219"><ele>418.6666666666667</ele><time>2026-04-27T15:28:41.99Z</time></trkpt><trkpt lat="39.46580179595322" lon="8.561770122969264"><ele>421.33333333333337</ele><time>2026-04-27T15:28:42.99Z</time></trkpt><trkpt lat="39.465768670656075" lon="8.561840731511204"><ele>424.0</ele><time>2026-04-27T15:28:43.99Z</time></trkpt><trkpt lat="39.46572327337208" lon="8.561980452275856"><ele>426.1666666666667</ele><time>2026-04-27T15:28:45.989Z</time></trkpt><trkpt lat="39.4656953982706" lon="8.562064955828692"><ele>428.33333333333337</ele><time>2026-04-27T15:28:46.989Z</time></trkpt><trkpt lat="39.46566305975772" lon="8.562198941545557"><ele>430.5</ele><time>2026-04-27T15:28:48.99Z</time></trkpt><trkpt lat="39.46563210050671" lon="8.56228756272346"><ele>432.66666666666663</ele><time>2026-04-27T15:28:49.99Z</time></trkpt><trkpt lat="39.46559953795627" lon="8.562436280396826"><ele>434.8333333333333</ele><time>2026-04-27T15:28:51.989Z</time></trkpt><trkpt lat="39.46558818038061" lon="8.562525788117986"><ele>437.0</ele><time>2026-04-27T15:28:52.989Z</time></trkpt><trkpt lat="39.46559780415422" lon="8.56261532389136"><ele>437.0</ele><time>2026-04-27T15:28:53.989Z</time></trkpt><trkpt lat="39.46561782389772" lon="8.562697609641827"><ele>437.0</ele><time>2026-04-27T15:28:54.989Z</time></trkpt><trkpt lat="39.465639214452295" lon="8.562795035496091"><ele>437.0</ele><time>2026-04-27T15:28:55.989Z</time></trkpt><trkpt lat="39.46563059079072" lon="8.562878605161268"><ele>437.0</ele><time>2026-04-27T15:28:56.989Z</time></trkpt><trkpt lat="39.46560227113133" lon="8.562969153052277"><ele>437.0</ele><time>2026-04-27T15:28:57.989Z</time></trkpt><trkpt lat="39.46556235882883" lon="8.56305030689079"><ele>437.0</ele><time>2026-04-27T15:28:58.989Z</time></trkpt><trkpt lat="39.46551123652217" lon="8.563122687013204"><ele>437.0</ele><time>2026-04-27T15:28:59.989Z</time></trkpt><trkpt lat="39.465455270312894" lon="8.563175810356718"><ele>437.6</ele><time>2026-04-27T15:29:00.989Z</time></trkpt><trkpt lat="39.46538892105935" lon="8.563216165750607"><ele>438.20000000000005</ele><time>2026-04-27T15:29:01.989Z</time></trkpt><trkpt lat="39.46531271182081" lon="8.563257164919484"><ele>438.8</ele><time>2026-04-27T15:29:02.989Z</time></trkpt><trkpt lat="39.46525472315372" lon="8.56329675112392"><ele>439.4</ele><time>2026-04-27T15:29:03.989Z</time></trkpt><trkpt lat="39.465136724098976" lon="8.563371929785363"><ele>440.0</ele><time>2026-04-27T15:29:05.989Z</time></trkpt><trkpt lat="39.4650184000522" lon="8.563425165527342"><ele>440.0</ele><time>2026-04-27T15:29:07.989Z</time></trkpt><trkpt lat="39.46488285234141" lon="8.563462255984964"><ele>440.0</ele><time>2026-04-27T15:29:09.989Z</time></trkpt><trkpt lat="39.464759840035114" lon="8.563477184600352"><ele>440.0</ele><time>2026-04-27T15:29:11.99Z</time></trkpt><trkpt lat="39.46462896275596" lon="8.563498380689255"><ele>440.0</ele><time>2026-04-27T15:29:13.99Z</time></trkpt><trkpt lat="39.46455533614167" lon="8.563519393742961"><ele>441.49999999999994</ele><time>2026-04-27T15:29:14.99Z</time></trkpt><trkpt lat="39.464474625009935" lon="8.563518098559927"><ele>443.0</ele><time>2026-04-27T15:29:15.99Z</time></trkpt><trkpt lat="39.46440822994407" lon="8.563487862703496"><ele>444.5</ele><time>2026-04-27T15:29:16.99Z</time></trkpt><trkpt lat="39.46433537418411" lon="8.563448289573351"><ele>446.0</ele><time>2026-04-27T15:29:17.99Z</time></trkpt><trkpt lat="39.464254070969" lon="8.563404598347194"><ele>447.49999999999994</ele><time>2026-04-27T15:29:18.99Z</time></trkpt><trkpt lat="39.46417692494371" lon="8.563369860074317"><ele>449.0</ele><time>2026-04-27T15:29:19.99Z</time></trkpt><trkpt lat="39.464099136368404" lon="8.563352446959595"><ele>448.99999999999994</ele><time>2026-04-27T15:29:20.99Z</time></trkpt><trkpt lat="39.46401811324218" lon="8.563349935801199"><ele>449.0</ele><time>2026-04-27T15:29:21.99Z</time></trkpt><trkpt lat="39.46394791230243" lon="8.563365408582051"><ele>449.0</ele><time>2026-04-27T15:29:22.99Z</time></trkpt><trkpt lat="39.46387895198871" lon="8.563399873096563"><ele>449.0</ele><time>2026-04-27T15:29:23.99Z</time></trkpt><trkpt lat="39.4638012051988" lon="8.563443882709349"><ele>448.99999999999994</ele><time>2026-04-27T15:29:24.99Z</time></trkpt><trkpt lat="39.46372209653809" lon="8.563494693463824"><ele>449.0</ele><time>2026-04-27T15:29:25.99Z</time></trkpt><trkpt lat="39.463642570247536" lon="8.563544127171522"><ele>451.4</ele><time>2026-04-27T15:29:26.99Z</time></trkpt><trkpt lat="39.463556685779636" lon="8.563596855274284"><ele>453.79999999999995</ele><time>2026-04-27T15:29:27.99Z</time></trkpt><trkpt lat="39.46348055430854" lon="8.563649221521166"><ele>456.20000000000005</ele><time>2026-04-27T15:29:28.99Z</time></trkpt><trkpt lat="39.46342684788999" lon="8.563699557718715"><ele>458.6</ele><time>2026-04-27T15:29:29.99Z</time></trkpt><trkpt lat="39.463375969528336" lon="8.56380332661593"><ele>461.0</ele><time>2026-04-27T15:29:31.99Z</time></trkpt><trkpt lat="39.46335015916097" lon="8.563956665741127"><ele>461.0</ele><time>2026-04-27T15:29:33.99Z</time></trkpt><trkpt lat="39.46333941641069" lon="8.564078805284737"><ele>461.0</ele><time>2026-04-27T15:29:35.99Z</time></trkpt><trkpt lat="39.46333217484501" lon="8.564218591225192"><ele>461.0</ele><time>2026-04-27T15:29:37.99Z</time></trkpt><trkpt lat="39.46333366977253" lon="8.564382347687816"><ele>461.0</ele><time>2026-04-27T15:29:39.99Z</time></trkpt><trkpt lat="39.46334091080431" lon="8.564463864939329"><ele>461.0</ele><time>2026-04-27T15:29:40.99Z</time></trkpt><trkpt lat="39.46334018906636" lon="8.564552493796215"><ele>461.66666666666663</ele><time>2026-04-27T15:29:41.99Z</time></trkpt><trkpt lat="39.463325968985345" lon="8.564643189048391"><ele>462.3333333333333</ele><time>2026-04-27T15:29:42.99Z</time></trkpt><trkpt lat="39.46328765464921" lon="8.564728049384048"><ele>463.0</ele><time>2026-04-27T15:29:43.99Z</time></trkpt><trkpt lat="39.46319384641776" lon="8.564816309353764"><ele>463.66666666666663</ele><time>2026-04-27T15:29:45.99Z</time></trkpt><trkpt lat="39.463085044791825" lon="8.564844933152505"><ele>464.3333333333333</ele><time>2026-04-27T15:29:47.99Z</time></trkpt><trkpt lat="39.46301879565117" lon="8.564861998719435"><ele>465.0</ele><time>2026-04-27T15:29:48.99Z</time></trkpt><trkpt lat="39.46288611231166" lon="8.564915232709145"><ele>465.1666666666667</ele><time>2026-04-27T15:29:50.99Z</time></trkpt><trkpt lat="39.46282723724837" lon="8.56495863646482"><ele>465.33333333333337</ele><time>2026-04-27T15:29:51.99Z</time></trkpt><trkpt lat="39.4627582029985" lon="8.56503233897357"><ele>465.5</ele><time>2026-04-27T15:29:52.99Z</time></trkpt><trkpt lat="39.46268909422721" lon="8.565108112560257"><ele>465.6666666666667</ele><time>2026-04-27T15:29:53.99Z</time></trkpt><trkpt lat="39.46260672089719" lon="8.565171166038906"><ele>465.83333333333337</ele><time>2026-04-27T15:29:54.99Z</time></trkpt><trkpt lat="39.46253141287481" lon="8.565210915362261"><ele>466.0</ele><time>2026-04-27T15:29:55.99Z</time></trkpt><trkpt lat="39.46245593860471" lon="8.565256449622257"><ele>466.0</ele><time>2026-04-27T15:29:56.99Z</time></trkpt><trkpt lat="39.46238343575524" lon="8.565306055420644"><ele>466.0</ele><time>2026-04-27T15:29:57.99Z</time></trkpt><trkpt lat="39.46229169686658" lon="8.56538823669505"><ele>466.0</ele><time>2026-04-27T15:29:58.99Z</time></trkpt><trkpt lat="39.46220066338869" lon="8.56546627026649"><ele>466.0</ele><time>2026-04-27T15:29:59.99Z</time></trkpt><trkpt lat="39.4621086769614" lon="8.565513400547758"><ele>466.0</ele><time>2026-04-27T15:30:00.99Z</time></trkpt><trkpt lat="39.462055916745314" lon="8.565586376378997"><ele>469.0</ele><time>2026-04-27T15:30:01.99Z</time></trkpt><trkpt lat="39.46198607043868" lon="8.565674466715254"><ele>472.0</ele><time>2026-04-27T15:30:02.99Z</time></trkpt><trkpt lat="39.461914047062045" lon="8.565773519485862"><ele>475.0</ele><time>2026-04-27T15:30:03.99Z</time></trkpt><trkpt lat="39.461849320586225" lon="8.565861724144874"><ele>478.0</ele><time>2026-04-27T15:30:04.99Z</time></trkpt><trkpt lat="39.4617887589843" lon="8.565952812551012"><ele>481.0</ele><time>2026-04-27T15:30:05.99Z</time></trkpt><trkpt lat="39.46173938707207" lon="8.566065042698428"><ele>481.00000000000006</ele><time>2026-04-27T15:30:06.99Z</time></trkpt><trkpt lat="39.46170260822457" lon="8.566175029328042"><ele>481.0</ele><time>2026-04-27T15:30:07.99Z</time></trkpt><trkpt lat="39.46167115381904" lon="8.566275555232165"><ele>481.0</ele><time>2026-04-27T15:30:08.99Z</time></trkpt><trkpt lat="39.46166601923359" lon="8.566364063993296"><ele>481.0</ele><time>2026-04-27T15:30:09.99Z</time></trkpt><trkpt lat="39.46164544865531" lon="8.566453754099152"><ele>481.00000000000006</ele><time>2026-04-27T15:30:10.99Z</time></trkpt><trkpt lat="39.461625645389056" lon="8.566554180324987"><ele>481.0</ele><time>2026-04-27T15:30:11.99Z</time></trkpt><trkpt lat="39.461610754507156" lon="8.566651438866604"><ele>480.00000000000006</ele><time>2026-04-27T15:30:12.99Z</time></trkpt><trkpt lat="39.461598563268105" lon="8.566736863168133"><ele>479.0</ele><time>2026-04-27T15:30:13.99Z</time></trkpt><trkpt lat="39.46155822482071" lon="8.566842325080327"><ele>478.0</ele><time>2026-04-27T15:30:15.99Z</time></trkpt><trkpt lat="39.46148759567409" lon="8.566831205038225"><ele>477.0</ele><time>2026-04-27T15:30:17.99Z</time></trkpt><trkpt lat="39.46146341326202" lon="8.566712562282326"><ele>476.00000000000006</ele><time>2026-04-27T15:30:19.99Z</time></trkpt><trkpt lat="39.461523020054294" lon="8.566571970741593"><ele>475.0</ele><time>2026-04-27T15:30:21.99Z</time></trkpt><trkpt lat="39.46156007457968" lon="8.56649309152506"><ele>475.0</ele><time>2026-04-27T15:30:22.99Z</time></trkpt><trkpt lat="39.461577129314705" lon="8.566409285459537"><ele>475.00000000000006</ele><time>2026-04-27T15:30:23.99Z</time></trkpt><trkpt lat="39.46159257637071" lon="8.566329834827268"><ele>475.0</ele><time>2026-04-27T15:30:24.99Z</time></trkpt><trkpt lat="39.461601912896" lon="8.566239248815785"><ele>475.0</ele><time>2026-04-27T15:30:25.99Z</time></trkpt><trkpt lat="39.461617394596914" lon="8.566146632725063"><ele>475.00000000000006</ele><time>2026-04-27T15:30:26.99Z</time></trkpt><trkpt lat="39.4616280666635" lon="8.566064885224867"><ele>475.0</ele><time>2026-04-27T15:30:27.99Z</time></trkpt><trkpt lat="39.461632542434195" lon="8.565970021703059"><ele>475.0</ele><time>2026-04-27T15:30:28.99Z</time></trkpt><trkpt lat="39.461638652282765" lon="8.565803843930576"><ele>476.00000000000006</ele><time>2026-04-27T15:30:30.99Z</time></trkpt><trkpt lat="39.461639792926356" lon="8.565722084201319"><ele>477.0</ele><time>2026-04-27T15:30:31.99Z</time></trkpt><trkpt lat="39.46166109011736" lon="8.565637306944188"><ele>478.0</ele><time>2026-04-27T15:30:32.99Z</time></trkpt><trkpt lat="39.461703177931305" lon="8.565574494209644"><ele>479.0</ele><time>2026-04-27T15:30:33.99Z</time></trkpt><trkpt lat="39.46175402959386" lon="8.565502005992466"><ele>480.00000000000006</ele><time>2026-04-27T15:30:34.99Z</time></trkpt><trkpt lat="39.461811903456244" lon="8.565341683226492"><ele>481.0</ele><time>2026-04-27T15:30:36.99Z</time></trkpt><trkpt lat="39.461869563194895" lon="8.565261407227302"><ele>482.99999999999994</ele><time>2026-04-27T15:30:37.99Z</time></trkpt><trkpt lat="39.46190756959681" lon="8.565178627856213"><ele>485.0</ele><time>2026-04-27T15:30:38.99Z</time></trkpt><trkpt lat="39.46191940741115" lon="8.565094868307156"><ele>486.99999999999994</ele><time>2026-04-27T15:30:39.99Z</time></trkpt><trkpt lat="39.46193939355998" lon="8.565016227007916"><ele>488.99999999999994</ele><time>2026-04-27T15:30:40.99Z</time></trkpt><trkpt lat="39.46195021407461" lon="8.564924797580561"><ele>491.0</ele><time>2026-04-27T15:30:41.99Z</time></trkpt><trkpt lat="39.46193112196467" lon="8.5648059576503"><ele>492.99999999999994</ele><time>2026-04-27T15:30:43.99Z</time></trkpt><trkpt lat="39.461901931637165" lon="8.56473219175182"><ele>494.99999999999994</ele><time>2026-04-27T15:30:44.99Z</time></trkpt><trkpt lat="39.46187147359805" lon="8.564647393863861"><ele>495.0</ele><time>2026-04-27T15:30:45.989Z</time></trkpt><trkpt lat="39.46184295095059" lon="8.56457407445636"><ele>495.0</ele><time>2026-04-27T15:30:46.989Z</time></trkpt><trkpt lat="39.46180670749437" lon="8.56445894819801"><ele>495.0</ele><time>2026-04-27T15:30:48.99Z</time></trkpt><trkpt lat="39.461829182177084" lon="8.56431398200582"><ele>495.0</ele><time>2026-04-27T15:30:50.989Z</time></trkpt><trkpt lat="39.4618399453245" lon="8.564222493686088"><ele>495.0</ele><time>2026-04-27T15:30:51.989Z</time></trkpt><trkpt lat="39.46181095230861" lon="8.564133511862844"><ele>495.0</ele><time>2026-04-27T15:30:54.99Z</time></trkpt><trkpt lat="39.46172731397937" lon="8.564145561418327"><ele>495.0</ele><time>2026-04-27T15:30:56.99Z</time></trkpt><trkpt lat="39.46169578329502" lon="8.564224055254991"><ele>495.0</ele><time>2026-04-27T15:30:57.989Z</time></trkpt><trkpt lat="39.461659587098836" lon="8.564348745743235"><ele>495.0</ele><time>2026-04-27T15:30:59.989Z</time></trkpt><trkpt lat="39.461650652443055" lon="8.56447345376445"><ele>495.0</ele><time>2026-04-27T15:31:01.989Z</time></trkpt><trkpt lat="39.46165816641453" lon="8.564617842553243"><ele>495.0</ele><time>2026-04-27T15:31:03.989Z</time></trkpt><trkpt lat="39.46166043009472" lon="8.56470706414933"><ele>495.0</ele><time>2026-04-27T15:31:04.989Z</time></trkpt><trkpt lat="39.461650349698424" lon="8.564788640684082"><ele>495.0</ele><time>2026-04-27T15:31:05.989Z</time></trkpt><trkpt lat="39.46160626637632" lon="8.564937889793443"><ele>495.0</ele><time>2026-04-27T15:31:07.989Z</time></trkpt><trkpt lat="39.46152934904225" lon="8.56505162847732"><ele>495.0</ele><time>2026-04-27T15:31:09.989Z</time></trkpt><trkpt lat="39.4614429058427" lon="8.565127240178276"><ele>495.0</ele><time>2026-04-27T15:31:11.989Z</time></trkpt><trkpt lat="39.4613301966527" lon="8.565221126448643"><ele>501.6</ele><time>2026-04-27T15:31:13.989Z</time></trkpt><trkpt lat="39.46127302366851" lon="8.56526932936777"><ele>508.2</ele><time>2026-04-27T15:31:14.989Z</time></trkpt><trkpt lat="39.4611733504947" lon="8.565379062779336"><ele>514.8</ele><time>2026-04-27T15:31:16.989Z</time></trkpt><trkpt lat="39.461111816825984" lon="8.5654660120383"><ele>521.4</ele><time>2026-04-27T15:31:18.989Z</time></trkpt><trkpt lat="39.46105943517982" lon="8.565378121499547"><ele>528.0</ele><time>2026-04-27T15:31:21.989Z</time></trkpt><trkpt lat="39.46112443546625" lon="8.565283300877661"><ele>529.8</ele><time>2026-04-27T15:31:23.989Z</time></trkpt><trkpt lat="39.46121318151141" lon="8.565192085365876"><ele>531.5999999999999</ele><time>2026-04-27T15:31:25.989Z</time></trkpt><trkpt lat="39.46125889371553" lon="8.565075499363145"><ele>533.4000000000001</ele><time>2026-04-27T15:31:27.989Z</time></trkpt><trkpt lat="39.46127593989633" lon="8.56494717892877"><ele>535.2</ele><time>2026-04-27T15:31:29.989Z</time></trkpt><trkpt lat="39.461245326445734" lon="8.564841581502439"><ele>537.0</ele><time>2026-04-27T15:31:31.989Z</time></trkpt><trkpt lat="39.46118465190942" lon="8.564747875301697"><ele>537.0</ele><time>2026-04-27T15:31:33.989Z</time></trkpt><trkpt lat="39.46108801100678" lon="8.564628686738875"><ele>537.0</ele><time>2026-04-27T15:31:35.989Z</time></trkpt><trkpt lat="39.46103719613811" lon="8.564560217569312"><ele>537.0</ele><time>2026-04-27T15:31:36.989Z</time></trkpt><trkpt lat="39.46099941408233" lon="8.564492484992346"><ele>537.0</ele><time>2026-04-27T15:31:37.989Z</time></trkpt><trkpt lat="39.460963896506556" lon="8.564416205798393"><ele>537.0</ele><time>2026-04-27T15:31:38.989Z</time></trkpt><trkpt lat="39.46092871708355" lon="8.564276757169766"><ele>537.6</ele><time>2026-04-27T15:31:40.989Z</time></trkpt><trkpt lat="39.46094005251738" lon="8.564150804816727"><ele>538.2</ele><time>2026-04-27T15:31:42.989Z</time></trkpt><trkpt lat="39.46095008850383" lon="8.56400163747588"><ele>538.8</ele><time>2026-04-27T15:31:44.989Z</time></trkpt><trkpt lat="39.460967415326095" lon="8.56391417451206"><ele>539.4</ele><time>2026-04-27T15:31:45.989Z</time></trkpt><trkpt lat="39.46103646169795" lon="8.563781778926366"><ele>540.0</ele><time>2026-04-27T15:31:47.989Z</time></trkpt><trkpt lat="39.46109275694503" lon="8.563656008528575"><ele>542.0</ele><time>2026-04-27T15:31:49.989Z</time></trkpt><trkpt lat="39.46111762049753" lon="8.563577771731818"><ele>544.0</ele><time>2026-04-27T15:31:50.989Z</time></trkpt><trkpt lat="39.46113573486468" lon="8.563496902247271"><ele>546.0</ele><time>2026-04-27T15:31:51.989Z</time></trkpt><trkpt lat="39.461150002407365" lon="8.563390562242482"><ele>548.0</ele><time>2026-04-27T15:31:52.989Z</time></trkpt><trkpt lat="39.46116248198997" lon="8.563307205890755"><ele>550.0</ele><time>2026-04-27T15:31:53.989Z</time></trkpt><trkpt lat="39.46117384871709" lon="8.563225572471662"><ele>552.0</ele><time>2026-04-27T15:31:54.989Z</time></trkpt><trkpt lat="39.461199257313126" lon="8.56312374315916"><ele>554.0</ele><time>2026-04-27T15:31:55.989Z</time></trkpt><trkpt lat="39.46120890095283" lon="8.563019228589512"><ele>554.0</ele><time>2026-04-27T15:31:56.989Z</time></trkpt><trkpt lat="39.461219472869956" lon="8.562917730865763"><ele>554.0</ele><time>2026-04-27T15:31:57.989Z</time></trkpt><trkpt lat="39.461239229246374" lon="8.562811999661658"><ele>554.0</ele><time>2026-04-27T15:31:58.989Z</time></trkpt><trkpt lat="39.46126551967152" lon="8.562721452625388"><ele>554.0</ele><time>2026-04-27T15:31:59.989Z</time></trkpt><trkpt lat="39.461290599352054" lon="8.562620944877425"><ele>554.0</ele><time>2026-04-27T15:32:00.989Z</time></trkpt><trkpt lat="39.46131740179205" lon="8.562525506197625"><ele>554.0</ele><time>2026-04-27T15:32:01.989Z</time></trkpt><trkpt lat="39.461330065677075" lon="8.562412484525177"><ele>555.0</ele><time>2026-04-27T15:32:02.989Z</time></trkpt><trkpt lat="39.46134659067316" lon="8.562316652127569"><ele>556.0</ele><time>2026-04-27T15:32:03.989Z</time></trkpt><trkpt lat="39.461367971119124" lon="8.562224126412584"><ele>557.0</ele><time>2026-04-27T15:32:04.989Z</time></trkpt><trkpt lat="39.46139996146998" lon="8.562141985294748"><ele>558.0</ele><time>2026-04-27T15:32:05.99Z</time></trkpt><trkpt lat="39.46146821611803" lon="8.56206841097408"><ele>559.0</ele><time>2026-04-27T15:32:07.99Z</time></trkpt><trkpt lat="39.46156872408925" lon="8.562045634809849"><ele>560.0</ele><time>2026-04-27T15:32:09.99Z</time></trkpt><trkpt lat="39.461675336476" lon="8.5619741452746"><ele>560.0</ele><time>2026-04-27T15:32:11.99Z</time></trkpt><trkpt lat="39.46173719422149" lon="8.561906923292577"><ele>560.0</ele><time>2026-04-27T15:32:12.99Z</time></trkpt><trkpt lat="39.46178966835101" lon="8.561837352220659"><ele>560.0</ele><time>2026-04-27T15:32:13.99Z</time></trkpt><trkpt lat="39.46183565431066" lon="8.561765841974685"><ele>560.0</ele><time>2026-04-27T15:32:14.99Z</time></trkpt><trkpt lat="39.461886073885765" lon="8.561617471695907"><ele>560.0</ele><time>2026-04-27T15:32:16.99Z</time></trkpt><trkpt lat="39.461889034882084" lon="8.561525904484165"><ele>560.0</ele><time>2026-04-27T15:32:17.99Z</time></trkpt><trkpt lat="39.46187174834535" lon="8.561432792975136"><ele>560.0</ele><time>2026-04-27T15:32:18.99Z</time></trkpt><trkpt lat="39.46183694571997" lon="8.561349401331398"><ele>560.0</ele><time>2026-04-27T15:32:19.99Z</time></trkpt><trkpt lat="39.46179599805916" lon="8.56125427475126"><ele>560.0</ele><time>2026-04-27T15:32:20.99Z</time></trkpt><trkpt lat="39.46176581279472" lon="8.561170819765042"><ele>560.0</ele><time>2026-04-27T15:32:21.99Z</time></trkpt><trkpt lat="39.46173733913335" lon="8.561043804519436"><ele>560.0</ele><time>2026-04-27T15:32:23.99Z</time></trkpt><trkpt lat="39.46173047375753" lon="8.560921711088348"><ele>560.0</ele><time>2026-04-27T15:36:00.989Z</time></trkpt><trkpt lat="39.46170153817039" lon="8.560804119757096"><ele>560.6</ele><time>2026-04-27T15:36:02.989Z</time></trkpt><trkpt lat="39.4616596192099" lon="8.560649635548359"><ele>561.2</ele><time>2026-04-27T15:36:04.989Z</time></trkpt><trkpt lat="39.461644173426734" lon="8.56054731094099"><ele>561.8</ele><time>2026-04-27T15:36:05.989Z</time></trkpt><trkpt lat="39.46163075590183" lon="8.560457072354614"><ele>562.4</ele><time>2026-04-27T15:36:06.989Z</time></trkpt><trkpt lat="39.46164189397696" lon="8.560319942741485"><ele>563.0</ele><time>2026-04-27T15:36:08.989Z</time></trkpt><trkpt lat="39.461627658289785" lon="8.560187463716371"><ele>563.0</ele><time>2026-04-27T15:36:10.989Z</time></trkpt><trkpt lat="39.461571392836014" lon="8.560065633712464"><ele>563.0</ele><time>2026-04-27T15:36:12.989Z</time></trkpt><trkpt lat="39.46149353396736" lon="8.559956944092363"><ele>563.0</ele><time>2026-04-27T15:36:14.989Z</time></trkpt><trkpt lat="39.46143059397907" lon="8.559884390805529"><ele>563.0</ele><time>2026-04-27T15:36:16.989Z</time></trkpt><trkpt lat="39.46136195196194" lon="8.55987579203757"><ele>563.0</ele><time>2026-04-27T15:36:18.989Z</time></trkpt><trkpt lat="39.46130137401389" lon="8.559940688208904"><ele>564.8</ele><time>2026-04-27T15:36:20.989Z</time></trkpt><trkpt lat="39.46122479121413" lon="8.560043246256031"><ele>566.5999999999999</ele><time>2026-04-27T15:36:22.989Z</time></trkpt><trkpt lat="39.461140430413316" lon="8.560042237928364"><ele>568.4000000000001</ele><time>2026-04-27T15:36:24.989Z</time></trkpt><trkpt lat="39.46108176198857" lon="8.559942967202689"><ele>570.2</ele><time>2026-04-27T15:36:26.989Z</time></trkpt><trkpt lat="39.461057673178985" lon="8.559787809015504"><ele>572.0</ele><time>2026-04-27T15:36:28.989Z</time></trkpt><trkpt lat="39.46103812161656" lon="8.559690765548144"><ele>572.0</ele><time>2026-04-27T15:36:29.989Z</time></trkpt><trkpt lat="39.461013457326686" lon="8.559582519192858"><ele>572.0</ele><time>2026-04-27T15:36:30.989Z</time></trkpt><trkpt lat="39.461001837983154" lon="8.55947620494617"><ele>572.0</ele><time>2026-04-27T15:36:31.989Z</time></trkpt><trkpt lat="39.46098143185206" lon="8.559370238623805"><ele>572.0</ele><time>2026-04-27T15:36:32.989Z</time></trkpt><trkpt lat="39.46092764635164" lon="8.559214690434132"><ele>572.0</ele><time>2026-04-27T15:36:34.989Z</time></trkpt><trkpt lat="39.46089216195768" lon="8.55914645831247"><ele>572.0</ele><time>2026-04-27T15:36:35.989Z</time></trkpt><trkpt lat="39.46080435586492" lon="8.55905640109047"><ele>570.5</ele><time>2026-04-27T15:36:37.989Z</time></trkpt><trkpt lat="39.46071613530179" lon="8.559041297443605"><ele>569.0</ele><time>2026-04-27T15:36:39.989Z</time></trkpt><trkpt lat="39.46061770754856" lon="8.559077215589639"><ele>567.5</ele><time>2026-04-27T15:36:41.989Z</time></trkpt><trkpt lat="39.46054957564765" lon="8.559110598213332"><ele>566.0</ele><time>2026-04-27T15:36:42.989Z</time></trkpt><trkpt lat="39.460475786859696" lon="8.55914525623759"><ele>564.5</ele><time>2026-04-27T15:36:43.989Z</time></trkpt><trkpt lat="39.46041271822931" lon="8.559157966633391"><ele>563.0</ele><time>2026-04-27T15:36:44.989Z</time></trkpt><trkpt lat="39.46034809885361" lon="8.559132010757775"><ele>563.0</ele><time>2026-04-27T15:36:45.989Z</time></trkpt><trkpt lat="39.46028959600407" lon="8.559087070481533"><ele>563.0</ele><time>2026-04-27T15:36:46.989Z</time></trkpt><trkpt lat="39.460225872951334" lon="8.559031792675052"><ele>563.0</ele><time>2026-04-27T15:36:47.989Z</time></trkpt><trkpt lat="39.46015843077284" lon="8.558976300792038"><ele>563.0</ele><time>2026-04-27T15:36:48.989Z</time></trkpt><trkpt lat="39.46009130775926" lon="8.558918275911035"><ele>563.0</ele><time>2026-04-27T15:36:49.989Z</time></trkpt><trkpt lat="39.46003991805634" lon="8.55886627003364"><ele>563.0</ele><time>2026-04-27T15:36:50.989Z</time></trkpt><trkpt lat="39.45994502770548" lon="8.558803325157966"><ele>563.0</ele><time>2026-04-27T15:36:52.989Z</time></trkpt><trkpt lat="39.45985140507572" lon="8.558790505285854"><ele>563.0</ele><time>2026-04-27T15:36:54.989Z</time></trkpt><trkpt lat="39.45979276667937" lon="8.558831640624264"><ele>563.0</ele><time>2026-04-27T15:36:56.989Z</time></trkpt><trkpt lat="39.459757604329035" lon="8.55892727011006"><ele>563.0</ele><time>2026-04-27T15:36:58.989Z</time></trkpt><trkpt lat="39.4597337427879" lon="8.559008397188528"><ele>563.0</ele><time>2026-04-27T15:36:59.989Z</time></trkpt><trkpt lat="39.4597051492524" lon="8.559110165418968"><ele>563.0</ele><time>2026-04-27T15:37:00.989Z</time></trkpt><trkpt lat="39.459675592384" lon="8.559212963036316"><ele>563.0</ele><time>2026-04-27T15:37:01.989Z</time></trkpt><trkpt lat="39.45964286227786" lon="8.559317966711742"><ele>563.0</ele><time>2026-04-27T15:37:02.989Z</time></trkpt><trkpt lat="39.45960841218084" lon="8.559415008428894"><ele>563.0</ele><time>2026-04-27T15:37:03.989Z</time></trkpt><trkpt lat="39.45956686837972" lon="8.559505053937412"><ele>563.0</ele><time>2026-04-27T15:37:04.989Z</time></trkpt><trkpt lat="39.459521441216566" lon="8.559595037376555"><ele>563.0</ele><time>2026-04-27T15:37:05.989Z</time></trkpt><trkpt lat="39.45946723237423" lon="8.559673275194754"><ele>563.0</ele><time>2026-04-27T15:37:06.989Z</time></trkpt><trkpt lat="39.45940539126053" lon="8.559728697727703"><ele>564.1666666666666</ele><time>2026-04-27T15:37:07.989Z</time></trkpt><trkpt lat="39.459340505186354" lon="8.559758127047031"><ele>565.3333333333333</ele><time>2026-04-27T15:37:08.988Z</time></trkpt><trkpt lat="39.459258641691044" lon="8.559790623370972"><ele>566.5</ele><time>2026-04-27T15:37:09.988Z</time></trkpt><trkpt lat="39.45918441042886" lon="8.559821243544073"><ele>567.6666666666666</ele><time>2026-04-27T15:37:10.989Z</time></trkpt><trkpt lat="39.45910437419734" lon="8.559845047929949"><ele>568.8333333333334</ele><time>2026-04-27T15:37:11.989Z</time></trkpt><trkpt lat="39.45902485790699" lon="8.559872141157943"><ele>570.0</ele><time>2026-04-27T15:37:12.989Z</time></trkpt><trkpt lat="39.458940448958195" lon="8.559883963866534"><ele>570.0</ele><time>2026-04-27T15:37:13.989Z</time></trkpt><trkpt lat="39.45885730945613" lon="8.559894255263982"><ele>570.0</ele><time>2026-04-27T15:37:14.989Z</time></trkpt><trkpt lat="39.45876008228391" lon="8.559892699644125"><ele>570.0</ele><time>2026-04-27T15:37:15.989Z</time></trkpt><trkpt lat="39.458664076844485" lon="8.55988530047374"><ele>570.0</ele><time>2026-04-27T15:37:16.989Z</time></trkpt><trkpt lat="39.458582029885804" lon="8.559876232055274"><ele>570.0</ele><time>2026-04-27T15:37:17.989Z</time></trkpt><trkpt lat="39.458499443698194" lon="8.559881984020771"><ele>570.0</ele><time>2026-04-27T15:37:18.989Z</time></trkpt><trkpt lat="39.4584166655258" lon="8.55990199025139"><ele>569.1666666666666</ele><time>2026-04-27T15:37:19.989Z</time></trkpt><trkpt lat="39.45833545689222" lon="8.559939183595874"><ele>568.3333333333334</ele><time>2026-04-27T15:37:20.989Z</time></trkpt><trkpt lat="39.458258179890386" lon="8.559994744173714"><ele>567.5</ele><time>2026-04-27T15:37:21.989Z</time></trkpt><trkpt lat="39.45817950807504" lon="8.560051040127439"><ele>566.6666666666667</ele><time>2026-04-27T15:37:22.989Z</time></trkpt><trkpt lat="39.45812875219213" lon="8.560107418338857"><ele>565.8333333333334</ele><time>2026-04-27T15:37:23.989Z</time></trkpt><trkpt lat="39.45806913979336" lon="8.560179513997378"><ele>565.0</ele><time>2026-04-27T15:37:24.989Z</time></trkpt><trkpt lat="39.458020147134086" lon="8.56025554055343"><ele>565.0</ele><time>2026-04-27T15:37:25.989Z</time></trkpt><trkpt lat="39.45797543408123" lon="8.560347154925617"><ele>565.0</ele><time>2026-04-27T15:37:26.989Z</time></trkpt><trkpt lat="39.4579249864891" lon="8.560438062616312"><ele>565.0</ele><time>2026-04-27T15:37:27.989Z</time></trkpt><trkpt lat="39.45786731737421" lon="8.560540227832469"><ele>565.0</ele><time>2026-04-27T15:37:28.989Z</time></trkpt><trkpt lat="39.45780554815304" lon="8.56063249292746"><ele>565.0</ele><time>2026-04-27T15:37:29.989Z</time></trkpt><trkpt lat="39.45773328020012" lon="8.560715638312315"><ele>566.6666666666667</ele><time>2026-04-27T15:37:30.989Z</time></trkpt><trkpt lat="39.457648881538276" lon="8.56075628716115"><ele>568.3333333333334</ele><time>2026-04-27T15:37:31.989Z</time></trkpt><trkpt lat="39.457553541894484" lon="8.560793557226463"><ele>570.0</ele><time>2026-04-27T15:37:32.989Z</time></trkpt><trkpt lat="39.45747652618761" lon="8.560841239386175"><ele>571.6666666666666</ele><time>2026-04-27T15:37:33.989Z</time></trkpt><trkpt lat="39.45739968096331" lon="8.560865225139956"><ele>573.3333333333333</ele><time>2026-04-27T15:37:34.989Z</time></trkpt><trkpt lat="39.45732176349925" lon="8.560873998613928"><ele>575.0</ele><time>2026-04-27T15:37:36.989Z</time></trkpt><trkpt lat="39.457271267016644" lon="8.560797253134696"><ele>575.0</ele><time>2026-04-27T15:37:38.989Z</time></trkpt><trkpt lat="39.4573368752697" lon="8.56066011164349"><ele>575.0</ele><time>2026-04-27T15:38:30.989Z</time></trkpt><trkpt lat="39.45739778649241" lon="8.560567504625057"><ele>575.0</ele><time>2026-04-27T15:38:32.989Z</time></trkpt><trkpt lat="39.457432736553116" lon="8.560458437498662"><ele>575.0</ele><time>2026-04-27T15:38:34.989Z</time></trkpt><trkpt lat="39.45744504293633" lon="8.560317993498693"><ele>575.0</ele><time>2026-04-27T15:38:36.989Z</time></trkpt><trkpt lat="39.457447737358706" lon="8.56017534192981"><ele>574.0</ele><time>2026-04-27T15:38:38.989Z</time></trkpt><trkpt lat="39.45750632027183" lon="8.560030439381725"><ele>573.0</ele><time>2026-04-27T15:38:40.989Z</time></trkpt><trkpt lat="39.45759787731222" lon="8.559907280287335"><ele>572.0</ele><time>2026-04-27T15:38:42.989Z</time></trkpt><trkpt lat="39.45764852144454" lon="8.55982715052816"><ele>571.0</ele><time>2026-04-27T15:38:43.989Z</time></trkpt><trkpt lat="39.45769517733755" lon="8.559735297258763"><ele>570.0</ele><time>2026-04-27T15:38:44.989Z</time></trkpt><trkpt lat="39.457744342318776" lon="8.5596745169808"><ele>570.0</ele><time>2026-04-27T15:38:45.989Z</time></trkpt><trkpt lat="39.45779553453697" lon="8.559600510690558"><ele>570.0</ele><time>2026-04-27T15:38:46.989Z</time></trkpt><trkpt lat="39.45790084335063" lon="8.559505703591157"><ele>570.0</ele><time>2026-04-27T15:38:48.989Z</time></trkpt><trkpt lat="39.45799926513479" lon="8.559453651726782"><ele>570.0</ele><time>2026-04-27T15:38:50.989Z</time></trkpt><trkpt lat="39.4581158847399" lon="8.559428339866493"><ele>570.0</ele><time>2026-04-27T15:38:52.989Z</time></trkpt><trkpt lat="39.45822954439633" lon="8.559347791147554"><ele>568.5</ele><time>2026-04-27T15:38:54.989Z</time></trkpt><trkpt lat="39.45829123617014" lon="8.559282560835207"><ele>567.0</ele><time>2026-04-27T15:38:55.989Z</time></trkpt><trkpt lat="39.45835623295161" lon="8.55922930245716"><ele>565.5</ele><time>2026-04-27T15:38:56.989Z</time></trkpt><trkpt lat="39.45841218185394" lon="8.559176063368716"><ele>564.0</ele><time>2026-04-27T15:38:57.989Z</time></trkpt><trkpt lat="39.458491364278004" lon="8.55905600787547"><ele>562.5</ele><time>2026-04-27T15:38:59.989Z</time></trkpt><trkpt lat="39.458542298768215" lon="8.5589916092968"><ele>561.0</ele><time>2026-04-27T15:39:00.989Z</time></trkpt><trkpt lat="39.45858709142118" lon="8.558927711241138"><ele>561.0</ele><time>2026-04-27T15:39:01.989Z</time></trkpt><trkpt lat="39.45863319118053" lon="8.558804300947095"><ele>561.0</ele><time>2026-04-27T15:39:03.989Z</time></trkpt><trkpt lat="39.45865818237342" lon="8.558725101215403"><ele>561.0</ele><time>2026-04-27T15:39:04.989Z</time></trkpt><trkpt lat="39.45869416245717" lon="8.558578235889435"><ele>561.0</ele><time>2026-04-27T15:39:06.989Z</time></trkpt><trkpt lat="39.4587226510591" lon="8.558449663963781"><ele>561.0</ele><time>2026-04-27T15:39:08.989Z</time></trkpt><trkpt lat="39.458742525070775" lon="8.558312118498824"><ele>560.2</ele><time>2026-04-27T15:39:10.989Z</time></trkpt><trkpt lat="39.45875765880321" lon="8.558230109318503"><ele>559.4000000000001</ele><time>2026-04-27T15:39:11.989Z</time></trkpt><trkpt lat="39.45875695586158" lon="8.558095223528278"><ele>558.6</ele><time>2026-04-27T15:39:13.989Z</time></trkpt><trkpt lat="39.458766592833115" lon="8.55795362507874"><ele>557.8000000000001</ele><time>2026-04-27T15:39:15.988Z</time></trkpt><trkpt lat="39.45878623732006" lon="8.557806223861089"><ele>557.0</ele><time>2026-04-27T15:39:17.988Z</time></trkpt><trkpt lat="39.458781030425456" lon="8.557694553839271"><ele>562.0</ele><time>2026-04-27T15:39:18.988Z</time></trkpt><trkpt lat="39.458758428032965" lon="8.557594486566373"><ele>567.0</ele><time>2026-04-27T15:39:19.988Z</time></trkpt><trkpt lat="39.45874346947551" lon="8.557509754908255"><ele>572.0</ele><time>2026-04-27T15:39:20.989Z</time></trkpt><trkpt lat="39.45874027803898" lon="8.557363334322535"><ele>577.0</ele><time>2026-04-27T15:39:22.989Z</time></trkpt><trkpt lat="39.4587488738061" lon="8.557282501136887"><ele>582.0</ele><time>2026-04-27T15:39:23.989Z</time></trkpt><trkpt lat="39.45876365079791" lon="8.557201369715843"><ele>587.0</ele><time>2026-04-27T15:39:24.989Z</time></trkpt><trkpt lat="39.45877978966828" lon="8.557107012422062"><ele>588.0</ele><time>2026-04-27T15:39:25.989Z</time></trkpt><trkpt lat="39.45878264951711" lon="8.556932240261583"><ele>589.0</ele><time>2026-04-27T15:39:27.989Z</time></trkpt><trkpt lat="39.45876316691403" lon="8.556781096114495"><ele>590.0</ele><time>2026-04-27T15:39:29.989Z</time></trkpt><trkpt lat="39.458732110979675" lon="8.556636397393437"><ele>591.0</ele><time>2026-04-27T15:39:31.989Z</time></trkpt><trkpt lat="39.45867657727966" lon="8.556494302760182"><ele>591.0</ele><time>2026-04-27T15:39:33.989Z</time></trkpt><trkpt lat="39.458629957013606" lon="8.55636129277919"><ele>591.0</ele><time>2026-04-27T15:39:35.989Z</time></trkpt><trkpt lat="39.45866192803614" lon="8.556225176495193"><ele>591.0</ele><time>2026-04-27T15:39:37.989Z</time></trkpt><trkpt lat="39.45872672646696" lon="8.55610224125456"><ele>591.0</ele><time>2026-04-27T15:39:39.989Z</time></trkpt><trkpt lat="39.458758360938674" lon="8.556013334078294"><ele>591.0</ele><time>2026-04-27T15:39:40.989Z</time></trkpt><trkpt lat="39.45880092801008" lon="8.555876236270539"><ele>590.8</ele><time>2026-04-27T15:39:42.989Z</time></trkpt><trkpt lat="39.45887470869452" lon="8.555833344122727"><ele>590.6</ele><time>2026-04-27T15:39:44.989Z</time></trkpt><trkpt lat="39.458943363213585" lon="8.555876648986162"><ele>590.4</ele><time>2026-04-27T15:39:46.989Z</time></trkpt><trkpt lat="39.45902477691496" lon="8.55596519955957"><ele>590.2</ele><time>2026-04-27T15:39:48.989Z</time></trkpt><trkpt lat="39.459104500811044" lon="8.555939613081385"><ele>590.0</ele><time>2026-04-27T15:39:50.989Z</time></trkpt><trkpt lat="39.45915350581222" lon="8.55581939320441"><ele>590.0</ele><time>2026-04-27T15:39:52.989Z</time></trkpt><trkpt lat="39.45914614292658" lon="8.555712478113984"><ele>590.0</ele><time>2026-04-27T15:39:54.989Z</time></trkpt><trkpt lat="39.45906659506034" lon="8.555734359670401"><ele>590.0</ele><time>2026-04-27T15:40:18.989Z</time></trkpt><trkpt lat="39.45899718542849" lon="8.555773685340403"><ele>590.0</ele><time>2026-04-27T15:45:35.978Z</time></trkpt><trkpt lat="39.458929881821796" lon="8.555735669758878"><ele>590.0</ele><time>2026-04-27T15:45:37.978Z</time></trkpt><trkpt lat="39.458814405300814" lon="8.555686235807133"><ele>590.0</ele><time>2026-04-27T15:45:39.978Z</time></trkpt><trkpt lat="39.458754090082635" lon="8.555658623130066"><ele>592.4</ele><time>2026-04-27T15:45:40.978Z</time></trkpt><trkpt lat="39.45862560554361" lon="8.555672588618252"><ele>594.8</ele><time>2026-04-27T15:45:42.978Z</time></trkpt><trkpt lat="39.4585422986626" lon="8.555693602441478"><ele>597.2</ele><time>2026-04-27T15:45:44.978Z</time></trkpt><trkpt lat="39.458455137752715" lon="8.55576376537366"><ele>599.6</ele><time>2026-04-27T15:45:46.978Z</time></trkpt><trkpt lat="39.45836258010254" lon="8.555868082451845"><ele>602.0</ele><time>2026-04-27T15:45:48.978Z</time></trkpt><trkpt lat="39.458292721929595" lon="8.555952146826757"><ele>602.0</ele><time>2026-04-27T15:45:50.978Z</time></trkpt><trkpt lat="39.458209577145375" lon="8.55599289889655"><ele>602.0</ele><time>2026-04-27T15:45:52.978Z</time></trkpt><trkpt lat="39.45810094890378" lon="8.555998604527202"><ele>602.0</ele><time>2026-04-27T15:45:54.978Z</time></trkpt><trkpt lat="39.45800549112297" lon="8.555989064847129"><ele>602.0</ele><time>2026-04-27T15:45:56.978Z</time></trkpt><trkpt lat="39.45790262038591" lon="8.555971029130111"><ele>602.0</ele><time>2026-04-27T15:45:58.978Z</time></trkpt><trkpt lat="39.45781529354184" lon="8.555947051598057"><ele>605.2</ele><time>2026-04-27T15:46:00.978Z</time></trkpt><trkpt lat="39.45771411892459" lon="8.555972233189864"><ele>608.4000000000001</ele><time>2026-04-27T15:46:02.978Z</time></trkpt><trkpt lat="39.45760740354093" lon="8.556007359707666"><ele>611.5999999999999</ele><time>2026-04-27T15:46:04.978Z</time></trkpt><trkpt lat="39.45751602302755" lon="8.556012368646684"><ele>614.8</ele><time>2026-04-27T15:46:06.978Z</time></trkpt><trkpt lat="39.45742908563684" lon="8.556025159475658"><ele>618.0</ele><time>2026-04-27T15:46:08.978Z</time></trkpt><trkpt lat="39.457327704692865" lon="8.5560282118376"><ele>618.0</ele><time>2026-04-27T15:46:10.978Z</time></trkpt><trkpt lat="39.45723719843555" lon="8.55603484256546"><ele>618.0</ele><time>2026-04-27T15:46:12.978Z</time></trkpt><trkpt lat="39.457145925487715" lon="8.556067666644902"><ele>618.0</ele><time>2026-04-27T15:46:14.978Z</time></trkpt><trkpt lat="39.45706268505766" lon="8.556130101182575"><ele>618.0</ele><time>2026-04-27T15:46:16.978Z</time></trkpt><trkpt lat="39.45699339972589" lon="8.556231353034763"><ele>618.0</ele><time>2026-04-27T15:46:18.978Z</time></trkpt><trkpt lat="39.45693706664122" lon="8.556359642042235"><ele>621.1666666666666</ele><time>2026-04-27T15:46:20.978Z</time></trkpt><trkpt lat="39.45688843102179" lon="8.556464240513604"><ele>624.3333333333334</ele><time>2026-04-27T15:46:22.978Z</time></trkpt><trkpt lat="39.45680266151299" lon="8.55646263496241"><ele>627.5</ele><time>2026-04-27T15:46:24.978Z</time></trkpt><trkpt lat="39.45671566390901" lon="8.556446925976848"><ele>630.6666666666667</ele><time>2026-04-27T15:46:26.978Z</time></trkpt><trkpt lat="39.45664666093993" lon="8.556518604357665"><ele>633.8333333333334</ele><time>2026-04-27T15:46:28.978Z</time></trkpt><trkpt lat="39.45660913200719" lon="8.556587305896759"><ele>637.0</ele><time>2026-04-27T15:46:29.978Z</time></trkpt><trkpt lat="39.4565698297543" lon="8.556681793711627"><ele>637.0</ele><time>2026-04-27T15:46:31.979Z</time></trkpt><trkpt lat="39.45651002902897" lon="8.556760422059881"><ele>637.0</ele><time>2026-04-27T15:46:33.979Z</time></trkpt><trkpt lat="39.45645634296688" lon="8.556845926330976"><ele>637.0</ele><time>2026-04-27T15:46:35.979Z</time></trkpt><trkpt lat="39.456415080471814" lon="8.556911205369932"><ele>637.0</ele><time>2026-04-27T15:46:36.979Z</time></trkpt><trkpt lat="39.45636214393072" lon="8.556964238229044"><ele>637.0</ele><time>2026-04-27T15:46:37.979Z</time></trkpt><trkpt lat="39.4562675968021" lon="8.557007593048672"><ele>637.0</ele><time>2026-04-27T15:46:39.979Z</time></trkpt><trkpt lat="39.45615558821538" lon="8.557005550342748"><ele>637.0</ele><time>2026-04-27T15:46:41.979Z</time></trkpt><trkpt lat="39.45606122014169" lon="8.557031239417334"><ele>637.0</ele><time>2026-04-27T15:46:43.979Z</time></trkpt><trkpt lat="39.456001892661504" lon="8.55699748675335"><ele>637.0</ele><time>2026-04-27T15:46:46.979Z</time></trkpt><trkpt lat="39.45607624829591" lon="8.556971162314216"><ele>637.0</ele><time>2026-04-27T15:46:57.979Z</time></trkpt><trkpt lat="39.456141125565196" lon="8.55702135049091"><ele>637.0</ele><time>2026-04-27T15:47:00.979Z</time></trkpt><trkpt lat="39.456236284295095" lon="8.557007134935755"><ele>637.0</ele><time>2026-04-27T15:47:02.979Z</time></trkpt><trkpt lat="39.45632040982809" lon="8.556976849654284"><ele>637.0</ele><time>2026-04-27T15:47:04.979Z</time></trkpt><trkpt lat="39.45639598995459" lon="8.556908321267361"><ele>637.0</ele><time>2026-04-27T15:47:06.979Z</time></trkpt><trkpt lat="39.456467454315714" lon="8.556811225275956"><ele>637.0</ele><time>2026-04-27T15:47:08.979Z</time></trkpt><trkpt lat="39.45652180575613" lon="8.556712365205339"><ele>637.0</ele><time>2026-04-27T15:47:10.979Z</time></trkpt><trkpt lat="39.45658172671941" lon="8.556619571679978"><ele>637.0</ele><time>2026-04-27T15:47:12.979Z</time></trkpt><trkpt lat="39.456648627462656" lon="8.556527708018269"><ele>637.0</ele><time>2026-04-27T15:47:14.979Z</time></trkpt><trkpt lat="39.45671892141376" lon="8.556458464993808"><ele>637.0</ele><time>2026-04-27T15:47:16.979Z</time></trkpt><trkpt lat="39.45678300165508" lon="8.556492217448367"><ele>637.0</ele><time>2026-04-27T15:47:18.979Z</time></trkpt><trkpt lat="39.45688054936187" lon="8.556438099934217"><ele>637.0</ele><time>2026-04-27T15:47:21.979Z</time></trkpt><trkpt lat="39.45692536835223" lon="8.556340567987904"><ele>637.0</ele><time>2026-04-27T15:47:23.979Z</time></trkpt><trkpt lat="39.45698241559436" lon="8.556261412836111"><ele>637.0</ele><time>2026-04-27T15:47:25.979Z</time></trkpt><trkpt lat="39.457055938709416" lon="8.556177511874491"><ele>633.2</ele><time>2026-04-27T15:47:27.979Z</time></trkpt><trkpt lat="39.45714201848679" lon="8.556125455338083"><ele>629.4000000000001</ele><time>2026-04-27T15:47:29.979Z</time></trkpt><trkpt lat="39.45723730726113" lon="8.556114588103112"><ele>625.5999999999999</ele><time>2026-04-27T15:47:31.978Z</time></trkpt><trkpt lat="39.45733560429341" lon="8.556085024109507"><ele>621.8</ele><time>2026-04-27T15:47:33.977Z</time></trkpt><trkpt lat="39.4574248956615" lon="8.556081180319714"><ele>618.0</ele><time>2026-04-27T15:47:35.978Z</time></trkpt><trkpt lat="39.457499968104685" lon="8.556076035742748"><ele>618.0</ele><time>2026-04-27T15:47:37.977Z</time></trkpt><trkpt lat="39.45758647111528" lon="8.556054764911798"><ele>618.0</ele><time>2026-04-27T15:47:39.977Z</time></trkpt><trkpt lat="39.45767302176666" lon="8.556023506995444"><ele>618.0</ele><time>2026-04-27T15:47:41.977Z</time></trkpt><trkpt lat="39.45778066861138" lon="8.555990136299354"><ele>618.0</ele><time>2026-04-27T15:47:43.977Z</time></trkpt><trkpt lat="39.457887215866876" lon="8.55600673110107"><ele>618.0</ele><time>2026-04-27T15:47:45.977Z</time></trkpt><trkpt lat="39.45795123393531" lon="8.556028040743927"><ele>615.3333333333334</ele><time>2026-04-27T15:47:46.977Z</time></trkpt><trkpt lat="39.45801521781494" lon="8.556035482674021"><ele>612.6666666666666</ele><time>2026-04-27T15:47:47.977Z</time></trkpt><trkpt lat="39.458078861363035" lon="8.55604641269131"><ele>610.0</ele><time>2026-04-27T15:47:48.977Z</time></trkpt><trkpt lat="39.458185518976904" lon="8.55604015609728"><ele>607.3333333333333</ele><time>2026-04-27T15:47:50.977Z</time></trkpt><trkpt lat="39.45827818786131" lon="8.555979131383562"><ele>604.6666666666666</ele><time>2026-04-27T15:47:52.977Z</time></trkpt><trkpt lat="39.45833068923311" lon="8.55591934502239"><ele>602.0</ele><time>2026-04-27T15:47:53.977Z</time></trkpt><trkpt lat="39.45838165820535" lon="8.555848893793614"><ele>602.0</ele><time>2026-04-27T15:47:54.977Z</time></trkpt><trkpt lat="39.458466052093655" lon="8.55575342271788"><ele>602.0</ele><time>2026-04-27T15:47:56.977Z</time></trkpt><trkpt lat="39.45853908263478" lon="8.555704457479516"><ele>602.0</ele><time>2026-04-27T15:47:58.977Z</time></trkpt><trkpt lat="39.45864045660058" lon="8.555676545657288"><ele>602.0</ele><time>2026-04-27T15:48:00.977Z</time></trkpt><trkpt lat="39.458711135540085" lon="8.555676399755423"><ele>602.0</ele><time>2026-04-27T15:48:01.977Z</time></trkpt><trkpt lat="39.45878858916403" lon="8.555680722527958"><ele>602.0</ele><time>2026-04-27T15:48:02.977Z</time></trkpt><trkpt lat="39.45885554514882" lon="8.555708175539205"><ele>599.6</ele><time>2026-04-27T15:48:03.977Z</time></trkpt><trkpt lat="39.45895418202046" lon="8.555758292476407"><ele>597.2</ele><time>2026-04-27T15:48:05.977Z</time></trkpt><trkpt lat="39.45905756025128" lon="8.555767282037447"><ele>594.8</ele><time>2026-04-27T15:48:07.977Z</time></trkpt><trkpt lat="39.45912852041602" lon="8.555737409454695"><ele>592.4</ele><time>2026-04-27T15:48:09.977Z</time></trkpt><trkpt lat="39.45914575995288" lon="8.555607048252577"><ele>590.0</ele><time>2026-04-27T15:48:12.977Z</time></trkpt><trkpt lat="39.4591111134798" lon="8.555506825905496"><ele>590.0</ele><time>2026-04-27T15:48:14.977Z</time></trkpt><trkpt lat="39.459088928947494" lon="8.55538627572525"><ele>590.0</ele><time>2026-04-27T15:48:16.977Z</time></trkpt><trkpt lat="39.459085932466564" lon="8.55530423613309"><ele>590.0</ele><time>2026-04-27T15:48:17.977Z</time></trkpt><trkpt lat="39.45908355620721" lon="8.555134075468878"><ele>590.0</ele><time>2026-04-27T15:48:19.977Z</time></trkpt><trkpt lat="39.45908189794828" lon="8.555041160888702"><ele>590.0</ele><time>2026-04-27T15:48:20.977Z</time></trkpt><trkpt lat="39.459090551197114" lon="8.554939118080071"><ele>590.0</ele><time>2026-04-27T15:48:21.977Z</time></trkpt><trkpt lat="39.459097602492534" lon="8.554850258012305"><ele>591.5</ele><time>2026-04-27T15:48:22.977Z</time></trkpt><trkpt lat="39.45908334823315" lon="8.554759617061237"><ele>593.0</ele><time>2026-04-27T15:48:23.977Z</time></trkpt><trkpt lat="39.45905429157456" lon="8.554669196342491"><ele>594.5</ele><time>2026-04-27T15:48:24.977Z</time></trkpt><trkpt lat="39.45901815337695" lon="8.554585886690843"><ele>596.0</ele><time>2026-04-27T15:48:25.977Z</time></trkpt><trkpt lat="39.45898236485561" lon="8.554492984624764"><ele>597.5</ele><time>2026-04-27T15:48:26.977Z</time></trkpt><trkpt lat="39.4589451612687" lon="8.554398459583808"><ele>599.0</ele><time>2026-04-27T15:48:27.977Z</time></trkpt><trkpt lat="39.45892601827967" lon="8.554308487479732"><ele>599.4</ele><time>2026-04-27T15:48:28.977Z</time></trkpt><trkpt lat="39.45895392087924" lon="8.554149961305384"><ele>599.8</ele><time>2026-04-27T15:48:30.977Z</time></trkpt><trkpt lat="39.45896840382566" lon="8.554040850195989"><ele>600.2</ele><time>2026-04-27T15:48:31.977Z</time></trkpt><trkpt lat="39.45896795719444" lon="8.553943283461248"><ele>600.6</ele><time>2026-04-27T15:48:32.977Z</time></trkpt><trkpt lat="39.45895131872732" lon="8.55381687996339"><ele>601.0</ele><time>2026-04-27T15:48:33.977Z</time></trkpt><trkpt lat="39.45893994956895" lon="8.553695019510757"><ele>601.8333333333334</ele><time>2026-04-27T15:48:34.977Z</time></trkpt><trkpt lat="39.45893296178204" lon="8.553580841711035"><ele>602.6666666666667</ele><time>2026-04-27T15:48:35.977Z</time></trkpt><trkpt lat="39.458923074636154" lon="8.553472674172449"><ele>603.5</ele><time>2026-04-27T15:48:36.977Z</time></trkpt><trkpt lat="39.45890284040603" lon="8.553381701646476"><ele>604.3333333333334</ele><time>2026-04-27T15:48:37.977Z</time></trkpt><trkpt lat="39.45886533503921" lon="8.553291902640325"><ele>605.1666666666666</ele><time>2026-04-27T15:48:38.977Z</time></trkpt><trkpt lat="39.45882534012921" lon="8.553220107975148"><ele>606.0</ele><time>2026-04-27T15:48:39.977Z</time></trkpt><trkpt lat="39.45876205267475" lon="8.553088231442064"><ele>606.6666666666666</ele><time>2026-04-27T15:48:41.977Z</time></trkpt><trkpt lat="39.45873635973836" lon="8.553011009215254"><ele>607.3333333333334</ele><time>2026-04-27T15:48:42.977Z</time></trkpt><trkpt lat="39.45871434350528" lon="8.552912570898442"><ele>608.0</ele><time>2026-04-27T15:48:43.977Z</time></trkpt><trkpt lat="39.4586860529797" lon="8.552832745751658"><ele>608.6666666666667</ele><time>2026-04-27T15:48:44.977Z</time></trkpt><trkpt lat="39.458655199256135" lon="8.552668082659492"><ele>609.3333333333334</ele><time>2026-04-27T15:48:46.977Z</time></trkpt><trkpt lat="39.458624803466606" lon="8.552575115893204"><ele>610.0</ele><time>2026-04-27T15:48:47.977Z</time></trkpt><trkpt lat="39.45858366869208" lon="8.552474202133144"><ele>608.5</ele><time>2026-04-27T15:48:48.977Z</time></trkpt><trkpt lat="39.45853617843029" lon="8.552384344633861"><ele>607.0</ele><time>2026-04-27T15:48:49.977Z</time></trkpt><trkpt lat="39.45851181793027" lon="8.552296175257336"><ele>605.5</ele><time>2026-04-27T15:48:50.977Z</time></trkpt><trkpt lat="39.45847416419223" lon="8.552218558780185"><ele>604.0</ele><time>2026-04-27T15:48:51.977Z</time></trkpt><trkpt lat="39.45843698397549" lon="8.552131537005744"><ele>602.5</ele><time>2026-04-27T15:48:52.977Z</time></trkpt><trkpt lat="39.45840066772769" lon="8.552046496107913"><ele>601.0</ele><time>2026-04-27T15:48:53.977Z</time></trkpt><trkpt lat="39.45836380266315" lon="8.551959802924355"><ele>600.0</ele><time>2026-04-27T15:48:54.977Z</time></trkpt><trkpt lat="39.45835314136146" lon="8.551847067056094"><ele>599.0</ele><time>2026-04-27T15:48:56.977Z</time></trkpt><trkpt lat="39.45841860460809" lon="8.551731989132435"><ele>598.0</ele><time>2026-04-27T15:48:58.977Z</time></trkpt><trkpt lat="39.45851289945467" lon="8.551637389778298"><ele>597.0</ele><time>2026-04-27T15:49:00.978Z</time></trkpt><trkpt lat="39.45857785879889" lon="8.551588378946182"><ele>596.0</ele><time>2026-04-27T15:49:01.978Z</time></trkpt><trkpt lat="39.45863998107265" lon="8.551517777394892"><ele>596.0</ele><time>2026-04-27T15:49:02.978Z</time></trkpt><trkpt lat="39.45870881565202" lon="8.551438776964098"><ele>596.0</ele><time>2026-04-27T15:49:03.978Z</time></trkpt><trkpt lat="39.45876955045698" lon="8.551357987358843"><ele>596.0</ele><time>2026-04-27T15:49:04.978Z</time></trkpt><trkpt lat="39.45882580599788" lon="8.551272289818963"><ele>596.0</ele><time>2026-04-27T15:49:05.978Z</time></trkpt><trkpt lat="39.45887772975288" lon="8.551217211546676"><ele>596.0</ele><time>2026-04-27T15:49:06.978Z</time></trkpt><trkpt lat="39.45892929036763" lon="8.551169706771537"><ele>596.0</ele><time>2026-04-27T15:49:07.978Z</time></trkpt><trkpt lat="39.45898499927689" lon="8.551131385597651"><ele>595.4</ele><time>2026-04-27T15:49:08.978Z</time></trkpt><trkpt lat="39.45905167676127" lon="8.551080512645772"><ele>594.8</ele><time>2026-04-27T15:49:09.978Z</time></trkpt><trkpt lat="39.459157912166084" lon="8.551030321892693"><ele>594.1999999999999</ele><time>2026-04-27T15:49:11.978Z</time></trkpt><trkpt lat="39.459238870697966" lon="8.550966633217394"><ele>593.6</ele><time>2026-04-27T15:49:13.978Z</time></trkpt><trkpt lat="39.459253669804085" lon="8.550825683044469"><ele>593.0</ele><time>2026-04-27T15:49:15.978Z</time></trkpt><trkpt lat="39.45925463270001" lon="8.550726440657181"><ele>593.0</ele><time>2026-04-27T15:49:16.978Z</time></trkpt><trkpt lat="39.45925967581422" lon="8.55062599503042"><ele>593.0</ele><time>2026-04-27T15:49:17.978Z</time></trkpt><trkpt lat="39.45925863310665" lon="8.550543297675627"><ele>593.0</ele><time>2026-04-27T15:49:18.978Z</time></trkpt><trkpt lat="39.45924646421361" lon="8.550424492607153"><ele>593.0</ele><time>2026-04-27T15:49:20.978Z</time></trkpt><trkpt lat="39.459189628597265" lon="8.550308269244768"><ele>593.0</ele><time>2026-04-27T15:49:22.978Z</time></trkpt><trkpt lat="39.459200158897524" lon="8.550187534169304"><ele>593.0</ele><time>2026-04-27T15:49:24.978Z</time></trkpt><trkpt lat="39.45923243110691" lon="8.550116111898587"><ele>594.0</ele><time>2026-04-27T15:49:25.978Z</time></trkpt><trkpt lat="39.459280135478274" lon="8.550045725675439"><ele>595.0</ele><time>2026-04-27T15:49:26.978Z</time></trkpt><trkpt lat="39.45935471036293" lon="8.549916000330978"><ele>596.0</ele><time>2026-04-27T15:49:28.978Z</time></trkpt><trkpt lat="39.45939420273249" lon="8.549787741963266"><ele>597.0</ele><time>2026-04-27T15:49:30.978Z</time></trkpt><trkpt lat="39.459410907551295" lon="8.549641341295668"><ele>598.0</ele><time>2026-04-27T15:49:32.978Z</time></trkpt><trkpt lat="39.459413058653496" lon="8.549537140672111"><ele>599.8333333333334</ele><time>2026-04-27T15:49:34.978Z</time></trkpt><trkpt lat="39.45941184173881" lon="8.549395823158978"><ele>601.6666666666667</ele><time>2026-04-27T15:49:36.977Z</time></trkpt><trkpt lat="39.45941418626505" lon="8.54929473703501"><ele>603.5</ele><time>2026-04-27T15:49:38.976Z</time></trkpt><trkpt lat="39.45943006080368" lon="8.5491915758831"><ele>605.3333333333334</ele><time>2026-04-27T15:49:40.977Z</time></trkpt><trkpt lat="39.45942202632682" lon="8.549104036779148"><ele>607.1666666666666</ele><time>2026-04-27T15:49:42.976Z</time></trkpt><trkpt lat="39.45947273257181" lon="8.549041525484146"><ele>609.0</ele><time>2026-04-27T15:49:44.977Z</time></trkpt><trkpt lat="39.459558510529" lon="8.549070278567905"><ele>609.0</ele><time>2026-04-27T15:49:46.976Z</time></trkpt><trkpt lat="39.45960882903321" lon="8.549151844118317"><ele>609.0</ele><time>2026-04-27T15:49:48.976Z</time></trkpt><trkpt lat="39.459690028149055" lon="8.549163556123663"><ele>609.0</ele><time>2026-04-27T15:49:50.977Z</time></trkpt><trkpt lat="39.45972343539636" lon="8.549062178280586"><ele>609.0</ele><time>2026-04-27T15:49:52.977Z</time></trkpt><trkpt lat="39.45971954338844" lon="8.548928951505138"><ele>609.0</ele><time>2026-04-27T15:49:54.977Z</time></trkpt><trkpt lat="39.45970590872421" lon="8.548772806098622"><ele>609.5</ele><time>2026-04-27T15:49:56.977Z</time></trkpt><trkpt lat="39.45969301144524" lon="8.548649802068637"><ele>610.0</ele><time>2026-04-27T15:49:58.977Z</time></trkpt><trkpt lat="39.45969503040764" lon="8.548556463413354"><ele>610.5</ele><time>2026-04-27T15:49:59.977Z</time></trkpt><trkpt lat="39.45969642391366" lon="8.548461794289025"><ele>611.0</ele><time>2026-04-27T15:50:00.977Z</time></trkpt><trkpt lat="39.45968568605575" lon="8.548377411668076"><ele>611.5</ele><time>2026-04-27T15:50:01.977Z</time></trkpt><trkpt lat="39.45966182497238" lon="8.548295384798218"><ele>612.0</ele><time>2026-04-27T15:50:02.977Z</time></trkpt><trkpt lat="39.45959837035576" lon="8.54814812185348"><ele>613.2857142857142</ele><time>2026-04-27T15:50:04.977Z</time></trkpt><trkpt lat="39.45953414417209" lon="8.548079421948168"><ele>614.5714285714286</ele><time>2026-04-27T15:50:05.977Z</time></trkpt><trkpt lat="39.459474671277015" lon="8.548045186924766"><ele>615.8571428571429</ele><time>2026-04-27T15:50:06.977Z</time></trkpt><trkpt lat="39.459415629128124" lon="8.548003861605089"><ele>617.1428571428571</ele><time>2026-04-27T15:50:07.977Z</time></trkpt><trkpt lat="39.459360540912144" lon="8.54796226309123"><ele>618.4285714285714</ele><time>2026-04-27T15:50:08.977Z</time></trkpt><trkpt lat="39.45931796226235" lon="8.547881187022675"><ele>619.7142857142857</ele><time>2026-04-27T15:50:09.977Z</time></trkpt><trkpt lat="39.459291653600914" lon="8.547796754557481"><ele>621.0</ele><time>2026-04-27T15:50:10.977Z</time></trkpt><trkpt lat="39.45928125844334" lon="8.547713909108728"><ele>621.5</ele><time>2026-04-27T15:50:11.977Z</time></trkpt><trkpt lat="39.459290213308144" lon="8.547624615706518"><ele>622.0</ele><time>2026-04-27T15:50:12.977Z</time></trkpt><trkpt lat="39.459329602568964" lon="8.547536326213773"><ele>622.5</ele><time>2026-04-27T15:50:13.977Z</time></trkpt><trkpt lat="39.45935144955383" lon="8.547438473715589"><ele>623.0</ele><time>2026-04-27T15:50:14.977Z</time></trkpt><trkpt lat="39.45934464356199" lon="8.5473229242515"><ele>623.5</ele><time>2026-04-27T15:50:15.977Z</time></trkpt><trkpt lat="39.45933516254761" lon="8.54723456667949"><ele>624.0</ele><time>2026-04-27T15:50:16.977Z</time></trkpt><trkpt lat="39.45930956211163" lon="8.5471373158599"><ele>624.0</ele><time>2026-04-27T15:50:17.977Z</time></trkpt><trkpt lat="39.459270637185014" lon="8.547039335890908"><ele>624.0</ele><time>2026-04-27T15:50:18.977Z</time></trkpt><trkpt lat="39.4592252825025" lon="8.546937026199872"><ele>624.0</ele><time>2026-04-27T15:50:19.977Z</time></trkpt><trkpt lat="39.45917452721473" lon="8.546828145763163"><ele>624.0</ele><time>2026-04-27T15:50:20.977Z</time></trkpt><trkpt lat="39.45913034624676" lon="8.546738645640797"><ele>624.0</ele><time>2026-04-27T15:50:21.977Z</time></trkpt><trkpt lat="39.45909978011145" lon="8.546604317079673"><ele>624.0</ele><time>2026-04-27T15:50:23.977Z</time></trkpt><trkpt lat="39.45912985792718" lon="8.546475555263598"><ele>624.0</ele><time>2026-04-27T15:50:25.977Z</time></trkpt><trkpt lat="39.45918287183155" lon="8.546383554158998"><ele>624.0</ele><time>2026-04-27T15:50:27.977Z</time></trkpt><trkpt lat="39.45922354707302" lon="8.546305142900321"><ele>624.0</ele><time>2026-04-27T15:50:28.977Z</time></trkpt><trkpt lat="39.4592500286692" lon="8.546142372557114"><ele>624.0</ele><time>2026-04-27T15:50:30.977Z</time></trkpt><trkpt lat="39.4592420576141" lon="8.546030929019631"><ele>623.2</ele><time>2026-04-27T15:50:31.977Z</time></trkpt><trkpt lat="39.45922847796251" lon="8.545909816633788"><ele>622.4</ele><time>2026-04-27T15:50:32.977Z</time></trkpt><trkpt lat="39.45921241107577" lon="8.545784997722077"><ele>621.6</ele><time>2026-04-27T15:50:33.977Z</time></trkpt><trkpt lat="39.45919393514623" lon="8.54566084222572"><ele>620.8</ele><time>2026-04-27T15:50:34.977Z</time></trkpt><trkpt lat="39.459168078026785" lon="8.54555511141214"><ele>620.0</ele><time>2026-04-27T15:50:35.977Z</time></trkpt><trkpt lat="39.459133918976455" lon="8.545449390434742"><ele>620.1666666666666</ele><time>2026-04-27T15:50:36.977Z</time></trkpt><trkpt lat="39.45910255369509" lon="8.545359966061104"><ele>620.3333333333333</ele><time>2026-04-27T15:50:37.977Z</time></trkpt><trkpt lat="39.459074648779094" lon="8.545270801488714"><ele>620.5</ele><time>2026-04-27T15:50:38.977Z</time></trkpt><trkpt lat="39.45905486688489" lon="8.545192081774468"><ele>620.6666666666666</ele><time>2026-04-27T15:50:39.977Z</time></trkpt><trkpt lat="39.4590920728094" lon="8.545051830451275"><ele>620.8333333333334</ele><time>2026-04-27T15:50:41.977Z</time></trkpt><trkpt lat="39.459130449853824" lon="8.54493873140093"><ele>621.0</ele><time>2026-04-27T15:50:42.977Z</time></trkpt><trkpt lat="39.4591673398075" lon="8.544829027578709"><ele>621.0</ele><time>2026-04-27T15:50:43.977Z</time></trkpt><trkpt lat="39.45921160378035" lon="8.544747037818034"><ele>621.0</ele><time>2026-04-27T15:50:44.977Z</time></trkpt><trkpt lat="39.45926345443504" lon="8.544669989993444"><ele>621.0</ele><time>2026-04-27T15:50:45.977Z</time></trkpt><trkpt lat="39.45933426753284" lon="8.544610885989103"><ele>621.0</ele><time>2026-04-27T15:50:46.977Z</time></trkpt><trkpt lat="39.45942265107955" lon="8.54453207681449"><ele>621.0</ele><time>2026-04-27T15:50:48.977Z</time></trkpt><trkpt lat="39.45950527384502" lon="8.544441495378768"><ele>622.0</ele><time>2026-04-27T15:50:50.977Z</time></trkpt><trkpt lat="39.459587033850696" lon="8.544326541693414"><ele>623.0</ele><time>2026-04-27T15:50:52.977Z</time></trkpt><trkpt lat="39.459636157773254" lon="8.544263914658584"><ele>624.0</ele><time>2026-04-27T15:50:53.977Z</time></trkpt><trkpt lat="39.4596844062054" lon="8.54419064483029"><ele>625.0</ele><time>2026-04-27T15:50:54.977Z</time></trkpt><trkpt lat="39.459735925544834" lon="8.544116694366252"><ele>626.0</ele><time>2026-04-27T15:50:55.977Z</time></trkpt><trkpt lat="39.4597830734527" lon="8.544036742483456"><ele>627.0</ele><time>2026-04-27T15:50:56.977Z</time></trkpt><trkpt lat="39.45981895156172" lon="8.543952939711868"><ele>628.3333333333334</ele><time>2026-04-27T15:50:57.977Z</time></trkpt><trkpt lat="39.45985003475502" lon="8.543864947265638"><ele>629.6666666666666</ele><time>2026-04-27T15:50:58.977Z</time></trkpt><trkpt lat="39.45988430228406" lon="8.543760198618479"><ele>631.0</ele><time>2026-04-27T15:50:59.977Z</time></trkpt><trkpt lat="39.459918127093275" lon="8.543655603137065"><ele>632.3333333333333</ele><time>2026-04-27T15:51:00.977Z</time></trkpt><trkpt lat="39.45996305943737" lon="8.543577783394252"><ele>633.6666666666666</ele><time>2026-04-27T15:51:01.977Z</time></trkpt><trkpt lat="39.460019725307376" lon="8.5435198066233"><ele>635.0</ele><time>2026-04-27T15:51:02.977Z</time></trkpt><trkpt lat="39.460151127315164" lon="8.543466621229774"><ele>634.8</ele><time>2026-04-27T15:51:04.977Z</time></trkpt><trkpt lat="39.4602368698593" lon="8.543459608779543"><ele>634.6</ele><time>2026-04-27T15:51:05.977Z</time></trkpt><trkpt lat="39.46033800347098" lon="8.543459614461977"><ele>634.4</ele><time>2026-04-27T15:51:06.977Z</time></trkpt><trkpt lat="39.460436760677254" lon="8.543461763467914"><ele>634.2</ele><time>2026-04-27T15:51:07.977Z</time></trkpt><trkpt lat="39.460522682973064" lon="8.543455635786813"><ele>634.0</ele><time>2026-04-27T15:51:08.977Z</time></trkpt><trkpt lat="39.46060953524291" lon="8.543451612125473"><ele>634.0</ele><time>2026-04-27T15:51:09.977Z</time></trkpt><trkpt lat="39.460684361064835" lon="8.54346408932372"><ele>634.0</ele><time>2026-04-27T15:51:10.977Z</time></trkpt><trkpt lat="39.460756858490164" lon="8.54347782461694"><ele>634.0</ele><time>2026-04-27T15:51:11.977Z</time></trkpt><trkpt lat="39.46082568485435" lon="8.543483886574107"><ele>634.0</ele><time>2026-04-27T15:51:12.977Z</time></trkpt><trkpt lat="39.46095886312276" lon="8.543455751326556"><ele>634.0</ele><time>2026-04-27T15:51:14.977Z</time></trkpt><trkpt lat="39.461042880428586" lon="8.543409721062279"><ele>634.0</ele><time>2026-04-27T15:51:15.977Z</time></trkpt><trkpt lat="39.461131630384635" lon="8.54335000058546"><ele>634.0</ele><time>2026-04-27T15:51:16.977Z</time></trkpt><trkpt lat="39.46121711619607" lon="8.543285460043055"><ele>634.0</ele><time>2026-04-27T15:51:17.977Z</time></trkpt><trkpt lat="39.46128581317613" lon="8.543258374483893"><ele>634.0</ele><time>2026-04-27T15:51:18.977Z</time></trkpt><trkpt lat="39.46134452536338" lon="8.54321554704063"><ele>634.0</ele><time>2026-04-27T15:51:19.977Z</time></trkpt><trkpt lat="39.46139678480395" lon="8.543158744842188"><ele>634.0</ele><time>2026-04-27T15:51:20.977Z</time></trkpt><trkpt lat="39.46143768813056" lon="8.54308768780194"><ele>634.0</ele><time>2026-04-27T15:51:21.977Z</time></trkpt><trkpt lat="39.461473919082174" lon="8.543003303381475"><ele>634.0</ele><time>2026-04-27T15:51:22.977Z</time></trkpt><trkpt lat="39.46149540294982" lon="8.542924745525282"><ele>632.1666666666667</ele><time>2026-04-27T15:51:23.977Z</time></trkpt><trkpt lat="39.461510988874025" lon="8.54276320846604"><ele>630.3333333333334</ele><time>2026-04-27T15:51:25.977Z</time></trkpt><trkpt lat="39.461511270635384" lon="8.542668456131185"><ele>628.5</ele><time>2026-04-27T15:51:26.977Z</time></trkpt><trkpt lat="39.46149313075783" lon="8.54257781563909"><ele>626.6666666666666</ele><time>2026-04-27T15:51:27.977Z</time></trkpt><trkpt lat="39.461491448718775" lon="8.542486904704294"><ele>624.8333333333333</ele><time>2026-04-27T15:51:28.977Z</time></trkpt><trkpt lat="39.46148411283838" lon="8.542398361262926"><ele>623.0</ele><time>2026-04-27T15:51:29.977Z</time></trkpt><trkpt lat="39.46148732822829" lon="8.542284814846447"><ele>623.0</ele><time>2026-04-27T15:51:31.977Z</time></trkpt><trkpt lat="39.46150465763335" lon="8.542191772795377"><ele>623.0</ele><time>2026-04-27T15:51:33.977Z</time></trkpt><trkpt lat="39.46151194694642" lon="8.542071987169459"><ele>623.0</ele><time>2026-04-27T15:51:35.977Z</time></trkpt><trkpt lat="39.46151321697435" lon="8.541943152955024"><ele>623.0</ele><time>2026-04-27T15:51:37.977Z</time></trkpt><trkpt lat="39.4615148725941" lon="8.541810557201638"><ele>623.0</ele><time>2026-04-27T15:51:39.977Z</time></trkpt><trkpt lat="39.46151154886708" lon="8.541666974774795"><ele>620.8</ele><time>2026-04-27T15:51:41.977Z</time></trkpt><trkpt lat="39.46151130140675" lon="8.541518006475503"><ele>618.5999999999999</ele><time>2026-04-27T15:51:43.976Z</time></trkpt><trkpt lat="39.461494402292736" lon="8.54136661129967"><ele>616.4000000000001</ele><time>2026-04-27T15:51:45.976Z</time></trkpt><trkpt lat="39.46145239378332" lon="8.541230971893546"><ele>614.2</ele><time>2026-04-27T15:51:47.976Z</time></trkpt><trkpt lat="39.46142825951784" lon="8.541147754481287"><ele>612.0</ele><time>2026-04-27T15:51:48.976Z</time></trkpt><trkpt lat="39.46140288216018" lon="8.5410669526134"><ele>610.0</ele><time>2026-04-27T15:51:49.976Z</time></trkpt><trkpt lat="39.461377401609504" lon="8.54098738507396"><ele>608.0</ele><time>2026-04-27T15:51:50.976Z</time></trkpt><trkpt lat="39.46135056865963" lon="8.540900709202457"><ele>606.0</ele><time>2026-04-27T15:51:51.976Z</time></trkpt><trkpt lat="39.46132734115831" lon="8.540816742667927"><ele>604.0</ele><time>2026-04-27T15:51:52.976Z</time></trkpt><trkpt lat="39.461296134294884" lon="8.540675556537375"><ele>602.0</ele><time>2026-04-27T15:51:54.976Z</time></trkpt><trkpt lat="39.461221137434904" lon="8.540566104864238"><ele>600.0</ele><time>2026-04-27T15:51:56.976Z</time></trkpt><trkpt lat="39.46111332247304" lon="8.540479039525838"><ele>599.6</ele><time>2026-04-27T15:51:58.976Z</time></trkpt><trkpt lat="39.46101192632713" lon="8.540389807458341"><ele>599.2</ele><time>2026-04-27T15:52:00.976Z</time></trkpt><trkpt lat="39.46095052889161" lon="8.540334930177677"><ele>598.8</ele><time>2026-04-27T15:52:01.976Z</time></trkpt><trkpt lat="39.4608753167537" lon="8.540194758802425"><ele>598.4</ele><time>2026-04-27T15:52:03.976Z</time></trkpt><trkpt lat="39.4608379014301" lon="8.540106650226567"><ele>598.0</ele><time>2026-04-27T15:52:04.976Z</time></trkpt><trkpt lat="39.460798551382396" lon="8.540011556666544"><ele>596.1666666666667</ele><time>2026-04-27T15:52:05.976Z</time></trkpt><trkpt lat="39.46075702804282" lon="8.539926645651857"><ele>594.3333333333334</ele><time>2026-04-27T15:52:06.976Z</time></trkpt><trkpt lat="39.46071032796214" lon="8.539853247710882"><ele>592.5</ele><time>2026-04-27T15:52:07.976Z</time></trkpt><trkpt lat="39.46065706981508" lon="8.539761872179362"><ele>590.6666666666666</ele><time>2026-04-27T15:52:08.976Z</time></trkpt><trkpt lat="39.46061258227548" lon="8.53968015565529"><ele>588.8333333333333</ele><time>2026-04-27T15:52:09.976Z</time></trkpt><trkpt lat="39.46057275909181" lon="8.539598154186642"><ele>587.0</ele><time>2026-04-27T15:52:10.976Z</time></trkpt><trkpt lat="39.460532070394315" lon="8.539507576705251"><ele>587.0</ele><time>2026-04-27T15:52:11.976Z</time></trkpt><trkpt lat="39.46049193800416" lon="8.539427146744224"><ele>587.0</ele><time>2026-04-27T15:52:12.976Z</time></trkpt><trkpt lat="39.460440443381806" lon="8.539324638938096"><ele>587.0</ele><time>2026-04-27T15:52:13.976Z</time></trkpt><trkpt lat="39.46038847476436" lon="8.539229298046017"><ele>587.0</ele><time>2026-04-27T15:52:14.976Z</time></trkpt><trkpt lat="39.4603404388686" lon="8.539138682612181"><ele>587.0</ele><time>2026-04-27T15:52:15.976Z</time></trkpt><trkpt lat="39.460296940611485" lon="8.539047372960768"><ele>587.0</ele><time>2026-04-27T15:52:16.976Z</time></trkpt><trkpt lat="39.460262258497174" lon="8.538970039261429"><ele>587.0</ele><time>2026-04-27T15:52:17.976Z</time></trkpt><trkpt lat="39.460243869067874" lon="8.538888938444206"><ele>587.0</ele><time>2026-04-27T15:52:18.976Z</time></trkpt><trkpt lat="39.46023993011289" lon="8.538805231420923"><ele>587.0</ele><time>2026-04-27T15:52:19.976Z</time></trkpt><trkpt lat="39.46024321755522" lon="8.538710276697351"><ele>587.0</ele><time>2026-04-27T15:52:20.976Z</time></trkpt><trkpt lat="39.46024575143753" lon="8.538617946360233"><ele>587.0</ele><time>2026-04-27T15:52:21.976Z</time></trkpt><trkpt lat="39.46024276536008" lon="8.5385328996018"><ele>587.0</ele><time>2026-04-27T15:52:22.976Z</time></trkpt><trkpt lat="39.46023428591127" lon="8.538441030995434"><ele>587.0</ele><time>2026-04-27T15:52:23.976Z</time></trkpt><trkpt lat="39.46022467692529" lon="8.538348070718765"><ele>585.5</ele><time>2026-04-27T15:52:24.976Z</time></trkpt><trkpt lat="39.46021944090626" lon="8.538196614141798"><ele>584.0</ele><time>2026-04-27T15:52:26.976Z</time></trkpt><trkpt lat="39.46021739736377" lon="8.538105016195791"><ele>582.5</ele><time>2026-04-27T15:52:27.976Z</time></trkpt><trkpt lat="39.46022777841997" lon="8.538020093164407"><ele>581.0</ele><time>2026-04-27T15:52:28.976Z</time></trkpt><trkpt lat="39.460238367111685" lon="8.537939463148321"><ele>579.5</ele><time>2026-04-27T15:52:29.976Z</time></trkpt><trkpt lat="39.4602486869171" lon="8.537857313450255"><ele>578.0</ele><time>2026-04-27T15:52:30.976Z</time></trkpt><trkpt lat="39.46026366390728" lon="8.537766686231908"><ele>576.1666666666666</ele><time>2026-04-27T15:52:31.976Z</time></trkpt><trkpt lat="39.460288702765844" lon="8.537672180943698"><ele>574.3333333333333</ele><time>2026-04-27T15:52:32.976Z</time></trkpt><trkpt lat="39.46032958790127" lon="8.537570064351277"><ele>572.5</ele><time>2026-04-27T15:52:33.976Z</time></trkpt><trkpt lat="39.46037704528432" lon="8.537483281964198"><ele>570.6666666666666</ele><time>2026-04-27T15:52:34.976Z</time></trkpt><trkpt lat="39.46042492086565" lon="8.53740018817319"><ele>568.8333333333334</ele><time>2026-04-27T15:52:35.976Z</time></trkpt><trkpt lat="39.46045959235606" lon="8.5373136740512"><ele>567.0</ele><time>2026-04-27T15:52:36.976Z</time></trkpt><trkpt lat="39.46048606459436" lon="8.537219803723046"><ele>566.0</ele><time>2026-04-27T15:52:37.976Z</time></trkpt><trkpt lat="39.46051051851733" lon="8.53712105427549"><ele>565.0</ele><time>2026-04-27T15:52:38.976Z</time></trkpt><trkpt lat="39.460537271211464" lon="8.537030058063557"><ele>564.0</ele><time>2026-04-27T15:52:39.976Z</time></trkpt><trkpt lat="39.46054966758149" lon="8.536948121727805"><ele>563.0</ele><time>2026-04-27T15:52:40.976Z</time></trkpt><trkpt lat="39.46057441619371" lon="8.536812540936477"><ele>562.0</ele><time>2026-04-27T15:52:42.976Z</time></trkpt><trkpt lat="39.460516808608" lon="8.536687363424416"><ele>561.0</ele><time>2026-04-27T15:52:45.976Z</time></trkpt><trkpt lat="39.46046328804754" lon="8.536642773024402"><ele>559.5</ele><time>2026-04-27T15:52:46.976Z</time></trkpt><trkpt lat="39.460399742178105" lon="8.536614810993694"><ele>558.0</ele><time>2026-04-27T15:52:47.976Z</time></trkpt><trkpt lat="39.46026613663081" lon="8.536583903020306"><ele>556.5</ele><time>2026-04-27T15:52:49.976Z</time></trkpt><trkpt lat="39.4601858845489" lon="8.536580463983876"><ele>555.0</ele><time>2026-04-27T15:52:50.976Z</time></trkpt><trkpt lat="39.46010614885208" lon="8.536586643461224"><ele>553.5</ele><time>2026-04-27T15:52:51.976Z</time></trkpt><trkpt lat="39.46002543473298" lon="8.536579641032137"><ele>552.0</ele><time>2026-04-27T15:52:52.976Z</time></trkpt><trkpt lat="39.45994244392275" lon="8.53655344914473"><ele>552.0</ele><time>2026-04-27T15:52:53.976Z</time></trkpt><trkpt lat="39.459862349628345" lon="8.536521654152454"><ele>552.0</ele><time>2026-04-27T15:52:54.976Z</time></trkpt><trkpt lat="39.45979951382462" lon="8.536481769825004"><ele>552.0</ele><time>2026-04-27T15:52:55.976Z</time></trkpt><trkpt lat="39.45972947307892" lon="8.536461079962468"><ele>552.0</ele><time>2026-04-27T15:52:56.976Z</time></trkpt><trkpt lat="39.45961121175121" lon="8.536448419350508"><ele>552.0</ele><time>2026-04-27T15:52:58.976Z</time></trkpt><trkpt lat="39.45949202090728" lon="8.536452163135953"><ele>551.2</ele><time>2026-04-27T15:53:00.976Z</time></trkpt><trkpt lat="39.45940442247087" lon="8.536500016646938"><ele>550.4000000000001</ele><time>2026-04-27T15:53:02.976Z</time></trkpt><trkpt lat="39.459325708531495" lon="8.536552788524489"><ele>549.5999999999999</ele><time>2026-04-27T15:53:04.976Z</time></trkpt><trkpt lat="39.459231099063494" lon="8.536622599372086"><ele>548.8</ele><time>2026-04-27T15:53:06.976Z</time></trkpt><trkpt lat="39.45910677935082" lon="8.536645308734073"><ele>548.0</ele><time>2026-04-27T15:53:08.976Z</time></trkpt><trkpt lat="39.459035204402035" lon="8.536616110987813"><ele>548.0</ele><time>2026-04-27T15:53:09.976Z</time></trkpt><trkpt lat="39.458954366828785" lon="8.536589059877347"><ele>548.0</ele><time>2026-04-27T15:53:10.976Z</time></trkpt><trkpt lat="39.45886968589067" lon="8.53656539829301"><ele>548.0</ele><time>2026-04-27T15:53:11.976Z</time></trkpt><trkpt lat="39.45878908928446" lon="8.536544102764879"><ele>548.0</ele><time>2026-04-27T15:53:12.976Z</time></trkpt><trkpt lat="39.45871712601717" lon="8.536520401064134"><ele>548.0</ele><time>2026-04-27T15:53:13.976Z</time></trkpt><trkpt lat="39.458636760023204" lon="8.536491552559367"><ele>548.0</ele><time>2026-04-27T15:53:14.976Z</time></trkpt><trkpt lat="39.4585616418035" lon="8.536464700632322"><ele>548.0</ele><time>2026-04-27T15:53:15.976Z</time></trkpt><trkpt lat="39.458487997568525" lon="8.536433334792836"><ele>548.0</ele><time>2026-04-27T15:53:16.976Z</time></trkpt><trkpt lat="39.45840737497462" lon="8.536403468732034"><ele>548.0</ele><time>2026-04-27T15:53:17.976Z</time></trkpt><trkpt lat="39.458343023055974" lon="8.53638237677153"><ele>548.0</ele><time>2026-04-27T15:53:18.976Z</time></trkpt><trkpt lat="39.458266135996446" lon="8.536352285981236"><ele>548.0</ele><time>2026-04-27T15:53:19.976Z</time></trkpt><trkpt lat="39.45816178921922" lon="8.536309839920998"><ele>548.0</ele><time>2026-04-27T15:53:21.976Z</time></trkpt><trkpt lat="39.45803604181482" lon="8.53626960637124"><ele>548.0</ele><time>2026-04-27T15:53:23.976Z</time></trkpt><trkpt lat="39.4579605837251" lon="8.536253862288461"><ele>548.0</ele><time>2026-04-27T15:53:24.976Z</time></trkpt><trkpt lat="39.45788433320586" lon="8.536229707755513"><ele>548.0</ele><time>2026-04-27T15:53:25.976Z</time></trkpt><trkpt lat="39.45781379607585" lon="8.536197832883298"><ele>548.0</ele><time>2026-04-27T15:53:26.976Z</time></trkpt><trkpt lat="39.45774290796822" lon="8.53613566450646"><ele>548.0</ele><time>2026-04-27T15:53:27.976Z</time></trkpt><trkpt lat="39.457684765259586" lon="8.536060384937333"><ele>548.0</ele><time>2026-04-27T15:53:28.976Z</time></trkpt><trkpt lat="39.457633126449835" lon="8.535986952709509"><ele>545.1666666666666</ele><time>2026-04-27T15:53:29.976Z</time></trkpt><trkpt lat="39.45757944470753" lon="8.535924241263153"><ele>542.3333333333333</ele><time>2026-04-27T15:53:30.976Z</time></trkpt><trkpt lat="39.457530461896624" lon="8.535866952113352"><ele>539.5</ele><time>2026-04-27T15:53:31.976Z</time></trkpt><trkpt lat="39.45748000992035" lon="8.535808038035956"><ele>536.6666666666666</ele><time>2026-04-27T15:53:32.976Z</time></trkpt><trkpt lat="39.4573922293615" lon="8.535687855316743"><ele>533.8333333333334</ele><time>2026-04-27T15:53:34.976Z</time></trkpt><trkpt lat="39.45734851230556" lon="8.535625435449761"><ele>531.0</ele><time>2026-04-27T15:53:35.976Z</time></trkpt><trkpt lat="39.457267620753996" lon="8.535522886934633"><ele>531.0</ele><time>2026-04-27T15:53:37.976Z</time></trkpt><trkpt lat="39.45717809297953" lon="8.535421620780019"><ele>531.0</ele><time>2026-04-27T15:53:39.976Z</time></trkpt><trkpt lat="39.457124428341764" lon="8.535376952306411"><ele>531.0</ele><time>2026-04-27T15:53:40.976Z</time></trkpt><trkpt lat="39.45706101751086" lon="8.53532731135296"><ele>531.0</ele><time>2026-04-27T15:53:41.976Z</time></trkpt><trkpt lat="39.457001227627806" lon="8.535277708756698"><ele>531.0</ele><time>2026-04-27T15:53:42.976Z</time></trkpt><trkpt lat="39.45692410326231" lon="8.535212387414436"><ele>531.0</ele><time>2026-04-27T15:53:43.976Z</time></trkpt><trkpt lat="39.45685249349035" lon="8.535143582165635"><ele>529.1666666666666</ele><time>2026-04-27T15:53:44.976Z</time></trkpt><trkpt lat="39.45679343818646" lon="8.535080992086655"><ele>527.3333333333334</ele><time>2026-04-27T15:53:45.976Z</time></trkpt><trkpt lat="39.45674088884179" lon="8.535021289014315"><ele>525.5</ele><time>2026-04-27T15:53:46.976Z</time></trkpt><trkpt lat="39.45665809607472" lon="8.534958631745923"><ele>523.6666666666667</ele><time>2026-04-27T15:53:48.976Z</time></trkpt><trkpt lat="39.45658949050167" lon="8.534966815416835"><ele>521.8333333333334</ele><time>2026-04-27T15:53:50.975Z</time></trkpt><trkpt lat="39.4565173407739" lon="8.534986149390537"><ele>520.0</ele><time>2026-04-27T15:53:52.975Z</time></trkpt><trkpt lat="39.45644727995552" lon="8.535027336526968"><ele>520.0</ele><time>2026-04-27T15:53:54.975Z</time></trkpt><trkpt lat="39.456367869701246" lon="8.535068801960744"><ele>520.0</ele><time>2026-04-27T15:53:56.976Z</time></trkpt><trkpt lat="39.456292127785225" lon="8.535102440805876"><ele>520.0</ele><time>2026-04-27T15:53:58.976Z</time></trkpt><trkpt lat="39.456204290795505" lon="8.53515762595119"><ele>520.0</ele><time>2026-04-27T15:54:00.976Z</time></trkpt><trkpt lat="39.45611270545586" lon="8.535225970970192"><ele>520.0</ele><time>2026-04-27T15:54:02.975Z</time></trkpt><trkpt lat="39.456018182868554" lon="8.535303250303492"><ele>518.8</ele><time>2026-04-27T15:54:04.975Z</time></trkpt><trkpt lat="39.455932844378395" lon="8.535395930822895"><ele>517.6</ele><time>2026-04-27T15:54:06.975Z</time></trkpt><trkpt lat="39.455830572504716" lon="8.535464298009188"><ele>516.4</ele><time>2026-04-27T15:54:08.975Z</time></trkpt><trkpt lat="39.45571413352733" lon="8.535507931425713"><ele>515.2</ele><time>2026-04-27T15:54:10.975Z</time></trkpt><trkpt lat="39.455646648395785" lon="8.535520261806711"><ele>514.0</ele><time>2026-04-27T15:54:11.975Z</time></trkpt><trkpt lat="39.45557856127259" lon="8.535527284309799"><ele>514.0</ele><time>2026-04-27T15:54:12.975Z</time></trkpt><trkpt lat="39.455507201586286" lon="8.53553822989735"><ele>514.0</ele><time>2026-04-27T15:54:13.975Z</time></trkpt><trkpt lat="39.45543511899772" lon="8.535549541245707"><ele>514.0</ele><time>2026-04-27T15:54:14.975Z</time></trkpt><trkpt lat="39.455315635219506" lon="8.5355774803506"><ele>514.0</ele><time>2026-04-27T15:54:16.975Z</time></trkpt><trkpt lat="39.4551933144129" lon="8.535595560251542"><ele>514.0</ele><time>2026-04-27T15:54:18.975Z</time></trkpt><trkpt lat="39.45510574321443" lon="8.535556594843882"><ele>513.8333333333334</ele><time>2026-04-27T15:54:20.975Z</time></trkpt><trkpt lat="39.45505335387661" lon="8.535446688050818"><ele>513.6666666666667</ele><time>2026-04-27T15:54:22.975Z</time></trkpt><trkpt lat="39.45504345094748" lon="8.535363563720267"><ele>513.5</ele><time>2026-04-27T15:54:23.975Z</time></trkpt><trkpt lat="39.455028807649484" lon="8.535278621029423"><ele>513.3333333333334</ele><time>2026-04-27T15:54:24.975Z</time></trkpt><trkpt lat="39.455002775378645" lon="8.535194428884113"><ele>513.1666666666666</ele><time>2026-04-27T15:54:25.975Z</time></trkpt><trkpt lat="39.45496518364228" lon="8.535117086205815"><ele>513.0</ele><time>2026-04-27T15:54:26.975Z</time></trkpt><trkpt lat="39.4549169479644" lon="8.535029261899092"><ele>513.0</ele><time>2026-04-27T15:54:27.975Z</time></trkpt><trkpt lat="39.454863406626735" lon="8.53494084641447"><ele>513.0</ele><time>2026-04-27T15:54:28.975Z</time></trkpt><trkpt lat="39.45480156006087" lon="8.534856703610485"><ele>513.0</ele><time>2026-04-27T15:54:29.975Z</time></trkpt><trkpt lat="39.45475035614316" lon="8.534793896588482"><ele>513.0</ele><time>2026-04-27T15:54:30.975Z</time></trkpt><trkpt lat="39.45468912564124" lon="8.534733954674394"><ele>513.0</ele><time>2026-04-27T15:54:32.975Z</time></trkpt><trkpt lat="39.45461409149479" lon="8.534756286456176"><ele>513.0</ele><time>2026-04-27T15:56:01.976Z</time></trkpt><trkpt lat="39.45453368700218" lon="8.534795981652074"><ele>512.0</ele><time>2026-04-27T15:56:04.975Z</time></trkpt><trkpt lat="39.45442001736861" lon="8.534853209106506"><ele>511.0</ele><time>2026-04-27T15:56:06.975Z</time></trkpt><trkpt lat="39.454360251389524" lon="8.534885172833983"><ele>510.0</ele><time>2026-04-27T15:56:07.975Z</time></trkpt><trkpt lat="39.4542651436163" lon="8.534942560206101"><ele>509.0</ele><time>2026-04-27T15:56:09.975Z</time></trkpt><trkpt lat="39.454188933947655" lon="8.534975877367948"><ele>508.0</ele><time>2026-04-27T15:56:11.975Z</time></trkpt><trkpt lat="39.45413132857391" lon="8.53501756743579"><ele>507.0</ele><time>2026-04-27T15:56:13.975Z</time></trkpt><trkpt lat="39.45402517378397" lon="8.53510229277469"><ele>507.0</ele><time>2026-04-27T15:56:15.975Z</time></trkpt><trkpt lat="39.453954909111985" lon="8.535146765175515"><ele>507.0</ele><time>2026-04-27T15:56:16.975Z</time></trkpt><trkpt lat="39.45387922682822" lon="8.535189680857288"><ele>507.0</ele><time>2026-04-27T15:56:17.975Z</time></trkpt><trkpt lat="39.45380211629605" lon="8.535240126285323"><ele>507.0</ele><time>2026-04-27T15:56:18.975Z</time></trkpt><trkpt lat="39.45372145447249" lon="8.535285157258869"><ele>507.0</ele><time>2026-04-27T15:56:19.975Z</time></trkpt><trkpt lat="39.45365178327784" lon="8.535321114895574"><ele>507.0</ele><time>2026-04-27T15:56:20.975Z</time></trkpt><trkpt lat="39.45359036762401" lon="8.535357538060365"><ele>503.5</ele><time>2026-04-27T15:56:21.975Z</time></trkpt><trkpt lat="39.45348378457412" lon="8.535408508033262"><ele>500.0</ele><time>2026-04-27T15:56:23.975Z</time></trkpt><trkpt lat="39.45337394421915" lon="8.535457409300118"><ele>496.5</ele><time>2026-04-27T15:56:25.975Z</time></trkpt><trkpt lat="39.453307738461234" lon="8.535488489803502"><ele>493.0</ele><time>2026-04-27T15:56:26.975Z</time></trkpt><trkpt lat="39.45324691211704" lon="8.535519466601874"><ele>489.5</ele><time>2026-04-27T15:56:27.975Z</time></trkpt><trkpt lat="39.45318876284899" lon="8.535551138969502"><ele>486.0</ele><time>2026-04-27T15:56:28.972Z</time></trkpt><trkpt lat="39.45312159231283" lon="8.535569499800106"><ele>486.0</ele><time>2026-04-27T15:56:29.971Z</time></trkpt><trkpt lat="39.4530614782884" lon="8.535600490320443"><ele>486.0</ele><time>2026-04-27T15:56:30.969Z</time></trkpt><trkpt lat="39.45299621272291" lon="8.535626788502896"><ele>486.0</ele><time>2026-04-27T15:56:31.967Z</time></trkpt><trkpt lat="39.45292196878783" lon="8.53565355037359"><ele>486.0</ele><time>2026-04-27T15:56:32.965Z</time></trkpt><trkpt lat="39.45284651262598" lon="8.535663911665605"><ele>486.0</ele><time>2026-04-27T15:56:33.964Z</time></trkpt><trkpt lat="39.452762246231785" lon="8.535682426269023"><ele>486.0</ele><time>2026-04-27T15:56:34.963Z</time></trkpt><trkpt lat="39.452685491429534" lon="8.535697367367137"><ele>486.0</ele><time>2026-04-27T15:56:35.961Z</time></trkpt><trkpt lat="39.45262133240822" lon="8.535718676555344"><ele>483.0</ele><time>2026-04-27T15:56:36.96Z</time></trkpt><trkpt lat="39.45255393246244" lon="8.535739937781921"><ele>480.0</ele><time>2026-04-27T15:56:37.959Z</time></trkpt><trkpt lat="39.452475806819926" lon="8.535756378613902"><ele>477.0</ele><time>2026-04-27T15:56:38.958Z</time></trkpt><trkpt lat="39.452397050991216" lon="8.535774088802231"><ele>474.0</ele><time>2026-04-27T15:56:39.957Z</time></trkpt><trkpt lat="39.45231839083579" lon="8.535787779105478"><ele>471.0</ele><time>2026-04-27T15:56:40.956Z</time></trkpt><trkpt lat="39.45225309755383" lon="8.535802145613992"><ele>468.0</ele><time>2026-04-27T15:56:41.955Z</time></trkpt><trkpt lat="39.45212411307474" lon="8.53586817484257"><ele>464.8333333333333</ele><time>2026-04-27T15:56:43.953Z</time></trkpt><trkpt lat="39.45204949808323" lon="8.535902764427677"><ele>461.66666666666663</ele><time>2026-04-27T15:56:44.953Z</time></trkpt><trkpt lat="39.451965096820174" lon="8.53592843695817"><ele>458.5</ele><time>2026-04-27T15:56:45.952Z</time></trkpt><trkpt lat="39.451885128528055" lon="8.535938880657618"><ele>455.3333333333333</ele><time>2026-04-27T15:56:46.951Z</time></trkpt><trkpt lat="39.45180870324024" lon="8.535935372048643"><ele>452.16666666666663</ele><time>2026-04-27T15:56:47.951Z</time></trkpt><trkpt lat="39.45173326760626" lon="8.535921205903287"><ele>449.0</ele><time>2026-04-27T15:56:48.95Z</time></trkpt><trkpt lat="39.451657221436385" lon="8.535923316024776"><ele>449.0</ele><time>2026-04-27T15:56:49.95Z</time></trkpt><trkpt lat="39.451585003577144" lon="8.535922434823066"><ele>449.0</ele><time>2026-04-27T15:56:50.949Z</time></trkpt><trkpt lat="39.45147178039867" lon="8.535927319173265"><ele>449.0</ele><time>2026-04-27T15:56:52.948Z</time></trkpt><trkpt lat="39.45138031201875" lon="8.535963889994713"><ele>449.0</ele><time>2026-04-27T15:56:54.947Z</time></trkpt><trkpt lat="39.45128295845307" lon="8.536026970855138"><ele>449.0</ele><time>2026-04-27T15:56:56.947Z</time></trkpt><trkpt lat="39.45116960130173" lon="8.53610306415398"><ele>445.8333333333333</ele><time>2026-04-27T15:56:58.946Z</time></trkpt><trkpt lat="39.45109561904648" lon="8.53615361823252"><ele>442.66666666666663</ele><time>2026-04-27T15:56:59.946Z</time></trkpt><trkpt lat="39.45102637741434" lon="8.53617187466508"><ele>439.5</ele><time>2026-04-27T15:57:00.946Z</time></trkpt><trkpt lat="39.45094494335304" lon="8.536175835451262"><ele>436.33333333333337</ele><time>2026-04-27T15:57:01.945Z</time></trkpt><trkpt lat="39.450859258634964" lon="8.536166289364042"><ele>433.1666666666667</ele><time>2026-04-27T15:57:02.945Z</time></trkpt><trkpt lat="39.45078948475733" lon="8.536169092555658"><ele>430.0</ele><time>2026-04-27T15:57:03.945Z</time></trkpt><trkpt lat="39.45067695730218" lon="8.536151596766711"><ele>430.00000000000006</ele><time>2026-04-27T15:57:05.945Z</time></trkpt><trkpt lat="39.45056124944573" lon="8.536140665557996"><ele>430.0</ele><time>2026-04-27T15:57:07.944Z</time></trkpt><trkpt lat="39.45046841705716" lon="8.536169907845215"><ele>430.0</ele><time>2026-04-27T15:57:09.944Z</time></trkpt><trkpt lat="39.450406831161665" lon="8.536196919494802"><ele>430.0</ele><time>2026-04-27T15:57:11.944Z</time></trkpt><trkpt lat="39.45037439037818" lon="8.536280559216337"><ele>430.00000000000006</ele><time>2026-04-27T16:01:28.94Z</time></trkpt><trkpt lat="39.45043649962292" lon="8.536243872431447"><ele>430.0</ele><time>2026-04-27T16:01:38.94Z</time></trkpt><trkpt lat="39.45049479306813" lon="8.536203660948622"><ele>430.0</ele><time>2026-04-27T16:01:40.94Z</time></trkpt><trkpt lat="39.45057624955194" lon="8.536192919286094"><ele>430.0</ele><time>2026-04-27T16:01:42.94Z</time></trkpt><trkpt lat="39.450663910429995" lon="8.536197933020587"><ele>430.0</ele><time>2026-04-27T16:01:44.94Z</time></trkpt><trkpt lat="39.45076008941354" lon="8.536230536494616"><ele>430.0</ele><time>2026-04-27T16:01:46.94Z</time></trkpt><trkpt lat="39.45085960749744" lon="8.536231326204469"><ele>430.0</ele><time>2026-04-27T16:01:48.94Z</time></trkpt><trkpt lat="39.450971856296604" lon="8.53621627116523"><ele>430.00000000000006</ele><time>2026-04-27T16:01:50.94Z</time></trkpt><trkpt lat="39.45108818583374" lon="8.536203373988458"><ele>430.0</ele><time>2026-04-27T16:01:52.94Z</time></trkpt><trkpt lat="39.451149598135295" lon="8.536178533788652"><ele>430.0</ele><time>2026-04-27T16:01:53.94Z</time></trkpt><trkpt lat="39.45127013017944" lon="8.53611076233243"><ele>430.0</ele><time>2026-04-27T16:01:55.94Z</time></trkpt><trkpt lat="39.45132861811201" lon="8.536060703153755"><ele>430.00000000000006</ele><time>2026-04-27T16:01:56.94Z</time></trkpt><trkpt lat="39.451389635672676" lon="8.536026935352982"><ele>430.0</ele><time>2026-04-27T16:01:57.94Z</time></trkpt><trkpt lat="39.4515057186957" lon="8.53599410155325"><ele>433.8</ele><time>2026-04-27T16:01:59.94Z</time></trkpt><trkpt lat="39.45162553868049" lon="8.535986093959579"><ele>437.6</ele><time>2026-04-27T16:02:01.94Z</time></trkpt><trkpt lat="39.451749781997414" lon="8.535995447449798"><ele>441.4</ele><time>2026-04-27T16:02:03.94Z</time></trkpt><trkpt lat="39.45181989204772" lon="8.535990767379516"><ele>445.2</ele><time>2026-04-27T16:02:04.94Z</time></trkpt><trkpt lat="39.451900900715216" lon="8.5359864234492"><ele>449.0</ele><time>2026-04-27T16:02:05.94Z</time></trkpt><trkpt lat="39.45197548331148" lon="8.535971013670332"><ele>448.99999999999994</ele><time>2026-04-27T16:02:06.94Z</time></trkpt><trkpt lat="39.452043283652664" lon="8.535940546371755"><ele>449.0</ele><time>2026-04-27T16:02:07.94Z</time></trkpt><trkpt lat="39.45213612195127" lon="8.535905781278634"><ele>449.0</ele><time>2026-04-27T16:02:08.94Z</time></trkpt><trkpt lat="39.45222578117224" lon="8.535870465044647"><ele>449.0</ele><time>2026-04-27T16:02:09.94Z</time></trkpt><trkpt lat="39.45230051128434" lon="8.535849179773559"><ele>448.99999999999994</ele><time>2026-04-27T16:02:10.94Z</time></trkpt><trkpt lat="39.45237773056272" lon="8.535826540520304"><ele>449.0</ele><time>2026-04-27T16:02:11.94Z</time></trkpt><trkpt lat="39.452454767407424" lon="8.535816827787563"><ele>452.16666666666663</ele><time>2026-04-27T16:02:12.94Z</time></trkpt><trkpt lat="39.45253799979269" lon="8.53579858676489"><ele>455.3333333333333</ele><time>2026-04-27T16:02:13.939Z</time></trkpt><trkpt lat="39.45261934989768" lon="8.535780210278194"><ele>458.5</ele><time>2026-04-27T16:02:14.939Z</time></trkpt><trkpt lat="39.45269405351035" lon="8.535764741217278"><ele>461.66666666666663</ele><time>2026-04-27T16:02:15.94Z</time></trkpt><trkpt lat="39.452769696636494" lon="8.535732751532336"><ele>464.8333333333333</ele><time>2026-04-27T16:02:16.94Z</time></trkpt><trkpt lat="39.45285572111698" lon="8.53570699431998"><ele>468.0</ele><time>2026-04-27T16:02:17.94Z</time></trkpt><trkpt lat="39.4529573618229" lon="8.535663571235144"><ele>471.0</ele><time>2026-04-27T16:02:18.94Z</time></trkpt><trkpt lat="39.4530523540514" lon="8.535635940913203"><ele>474.0</ele><time>2026-04-27T16:02:19.94Z</time></trkpt><trkpt lat="39.453133661868314" lon="8.535605404531955"><ele>477.0</ele><time>2026-04-27T16:02:20.94Z</time></trkpt><trkpt lat="39.45324088282802" lon="8.535559238229881"><ele>480.0</ele><time>2026-04-27T16:02:22.939Z</time></trkpt><trkpt lat="39.45330714503933" lon="8.535522317198316"><ele>483.0</ele><time>2026-04-27T16:02:23.939Z</time></trkpt><trkpt lat="39.45337923078828" lon="8.535485982596597"><ele>486.0</ele><time>2026-04-27T16:02:24.94Z</time></trkpt><trkpt lat="39.45344512022876" lon="8.535451386384869"><ele>484.8</ele><time>2026-04-27T16:02:25.939Z</time></trkpt><trkpt lat="39.45358031154436" lon="8.535381969635939"><ele>483.6</ele><time>2026-04-27T16:02:27.939Z</time></trkpt><trkpt lat="39.453647399561376" lon="8.535343166391902"><ele>482.4</ele><time>2026-04-27T16:02:28.939Z</time></trkpt><trkpt lat="39.453725195907914" lon="8.535303783864142"><ele>481.2</ele><time>2026-04-27T16:02:29.939Z</time></trkpt><trkpt lat="39.45381965934241" lon="8.535253721276673"><ele>480.0</ele><time>2026-04-27T16:02:30.939Z</time></trkpt><trkpt lat="39.45391141944361" lon="8.535190487133312"><ele>485.4</ele><time>2026-04-27T16:02:31.939Z</time></trkpt><trkpt lat="39.453997311424345" lon="8.53512582106204"><ele>490.8</ele><time>2026-04-27T16:02:32.939Z</time></trkpt><trkpt lat="39.45408319882227" lon="8.535069516563729"><ele>496.20000000000005</ele><time>2026-04-27T16:02:33.939Z</time></trkpt><trkpt lat="39.4541586172648" lon="8.535012442387766"><ele>501.6</ele><time>2026-04-27T16:02:34.939Z</time></trkpt><trkpt lat="39.45427262306925" lon="8.534951492264106"><ele>507.0</ele><time>2026-04-27T16:02:36.939Z</time></trkpt><trkpt lat="39.454380496405555" lon="8.534889042143492"><ele>507.0</ele><time>2026-04-27T16:02:38.939Z</time></trkpt><trkpt lat="39.45444208900895" lon="8.534855444446684"><ele>507.0</ele><time>2026-04-27T16:02:39.939Z</time></trkpt><trkpt lat="39.45451204673478" lon="8.534826176585655"><ele>507.0</ele><time>2026-04-27T16:02:40.939Z</time></trkpt><trkpt lat="39.45458076237254" lon="8.534799796999252"><ele>507.0</ele><time>2026-04-27T16:02:41.939Z</time></trkpt><trkpt lat="39.454646706643096" lon="8.534781859824284"><ele>507.0</ele><time>2026-04-27T16:02:42.939Z</time></trkpt><trkpt lat="39.454745948296456" lon="8.534811282372791"><ele>507.0</ele><time>2026-04-27T16:02:44.939Z</time></trkpt><trkpt lat="39.4548252009787" lon="8.53490289573558"><ele>507.40000000000003</ele><time>2026-04-27T16:02:46.939Z</time></trkpt><trkpt lat="39.45488729075897" lon="8.53500434202109"><ele>507.80000000000007</ele><time>2026-04-27T16:02:48.939Z</time></trkpt><trkpt lat="39.45492759583574" lon="8.535074170016363"><ele>508.2</ele><time>2026-04-27T16:02:50.939Z</time></trkpt><trkpt lat="39.454983347016054" lon="8.535175712954649"><ele>508.6</ele><time>2026-04-27T16:03:28.939Z</time></trkpt><trkpt lat="39.455036978189995" lon="8.535317620182152"><ele>509.0</ele><time>2026-04-27T16:03:30.939Z</time></trkpt><trkpt lat="39.45505718167241" lon="8.535401877020412"><ele>509.0</ele><time>2026-04-27T16:03:31.939Z</time></trkpt><trkpt lat="39.45509392384624" lon="8.535541624625003"><ele>509.0</ele><time>2026-04-27T16:03:33.939Z</time></trkpt><trkpt lat="39.45515421062288" lon="8.535600165025226"><ele>509.0</ele><time>2026-04-27T16:03:35.939Z</time></trkpt><trkpt lat="39.45524400840165" lon="8.535607719694875"><ele>509.0</ele><time>2026-04-27T16:03:37.939Z</time></trkpt><trkpt lat="39.45534285245272" lon="8.535570546344326"><ele>509.0</ele><time>2026-04-27T16:03:39.939Z</time></trkpt><trkpt lat="39.4554288907494" lon="8.53555363624085"><ele>510.0</ele><time>2026-04-27T16:03:40.939Z</time></trkpt><trkpt lat="39.45553213188895" lon="8.535541276537916"><ele>511.0</ele><time>2026-04-27T16:03:41.939Z</time></trkpt><trkpt lat="39.45564307019467" lon="8.535521975308354"><ele>512.0</ele><time>2026-04-27T16:03:42.939Z</time></trkpt><trkpt lat="39.45574746761764" lon="8.535500978676804"><ele>513.0</ele><time>2026-04-27T16:03:43.939Z</time></trkpt><trkpt lat="39.45582862864894" lon="8.535478982228474"><ele>514.0</ele><time>2026-04-27T16:03:44.939Z</time></trkpt><trkpt lat="39.45589338489687" lon="8.535436553121084"><ele>513.1428571428571</ele><time>2026-04-27T16:03:45.939Z</time></trkpt><trkpt lat="39.45594783604998" lon="8.53538162277168"><ele>512.2857142857143</ele><time>2026-04-27T16:03:46.939Z</time></trkpt><trkpt lat="39.45601196376533" lon="8.53531308803321"><ele>511.42857142857144</ele><time>2026-04-27T16:03:47.939Z</time></trkpt><trkpt lat="39.45607044022954" lon="8.53525770077425"><ele>510.57142857142856</ele><time>2026-04-27T16:03:48.939Z</time></trkpt><trkpt lat="39.45612686997794" lon="8.535214536705132"><ele>509.71428571428567</ele><time>2026-04-27T16:03:49.939Z</time></trkpt><trkpt lat="39.456189706734065" lon="8.535172684456253"><ele>508.8571428571429</ele><time>2026-04-27T16:03:50.939Z</time></trkpt><trkpt lat="39.45626432372709" lon="8.535131221624912"><ele>508.0</ele><time>2026-04-27T16:03:51.939Z</time></trkpt><trkpt lat="39.45634006332001" lon="8.53508609680038"><ele>510.4</ele><time>2026-04-27T16:03:52.939Z</time></trkpt><trkpt lat="39.456407712991506" lon="8.535055500324805"><ele>512.8</ele><time>2026-04-27T16:03:53.939Z</time></trkpt><trkpt lat="39.456469032185126" lon="8.535025017930888"><ele>515.2</ele><time>2026-04-27T16:03:54.939Z</time></trkpt><trkpt lat="39.456545323490765" lon="8.534994882546808"><ele>517.6</ele><time>2026-04-27T16:03:55.939Z</time></trkpt><trkpt lat="39.456661454611776" lon="8.534985984138807"><ele>520.0</ele><time>2026-04-27T16:03:57.939Z</time></trkpt><trkpt lat="39.45676913393071" lon="8.535047116956145"><ele>520.0</ele><time>2026-04-27T16:03:59.939Z</time></trkpt><trkpt lat="39.45681412685526" lon="8.535109246714406"><ele>520.0</ele><time>2026-04-27T16:04:00.939Z</time></trkpt><trkpt lat="39.456874307677786" lon="8.53518415546335"><ele>520.0</ele><time>2026-04-27T16:04:01.939Z</time></trkpt><trkpt lat="39.456953938358154" lon="8.535258939138206"><ele>520.0</ele><time>2026-04-27T16:04:02.939Z</time></trkpt><trkpt lat="39.45703837273597" lon="8.535325106691586"><ele>520.0</ele><time>2026-04-27T16:04:03.939Z</time></trkpt><trkpt lat="39.45711888296757" lon="8.535392799093945"><ele>520.0</ele><time>2026-04-27T16:04:04.939Z</time></trkpt><trkpt lat="39.45719602114465" lon="8.535457524583668"><ele>521.8333333333334</ele><time>2026-04-27T16:04:05.939Z</time></trkpt><trkpt lat="39.45727220057783" lon="8.535528362179893"><ele>523.6666666666667</ele><time>2026-04-27T16:04:06.939Z</time></trkpt><trkpt lat="39.457322718295316" lon="8.535582837152914"><ele>525.5</ele><time>2026-04-27T16:04:07.939Z</time></trkpt><trkpt lat="39.45738445574196" lon="8.535660959814297"><ele>527.3333333333334</ele><time>2026-04-27T16:04:08.939Z</time></trkpt><trkpt lat="39.45742617343162" lon="8.5357302704614"><ele>529.1666666666666</ele><time>2026-04-27T16:04:09.939Z</time></trkpt><trkpt lat="39.45747701494711" lon="8.535812139367442"><ele>531.0</ele><time>2026-04-27T16:04:10.939Z</time></trkpt><trkpt lat="39.45755248725176" lon="8.535906776987591"><ele>531.0</ele><time>2026-04-27T16:04:12.939Z</time></trkpt><trkpt lat="39.45761381974309" lon="8.535976395761764"><ele>531.0</ele><time>2026-04-27T16:04:13.939Z</time></trkpt><trkpt lat="39.45767046401746" lon="8.536037839215505"><ele>531.0</ele><time>2026-04-27T16:04:14.939Z</time></trkpt><trkpt lat="39.45772744131613" lon="8.536107231295855"><ele>531.0</ele><time>2026-04-27T16:04:15.939Z</time></trkpt><trkpt lat="39.457793721756694" lon="8.536189541520695"><ele>531.0</ele><time>2026-04-27T16:04:16.939Z</time></trkpt><trkpt lat="39.457867533589955" lon="8.53625182302822"><ele>531.0</ele><time>2026-04-27T16:04:17.939Z</time></trkpt><trkpt lat="39.45794170435328" lon="8.536283394374335"><ele>533.8333333333334</ele><time>2026-04-27T16:04:18.939Z</time></trkpt><trkpt lat="39.45800745142197" lon="8.536292710957255"><ele>536.6666666666666</ele><time>2026-04-27T16:04:19.939Z</time></trkpt><trkpt lat="39.4581170220044" lon="8.53630073116252"><ele>539.5</ele><time>2026-04-27T16:04:21.938Z</time></trkpt><trkpt lat="39.45818621572744" lon="8.536328234624865"><ele>542.3333333333333</ele><time>2026-04-27T16:04:22.938Z</time></trkpt><trkpt lat="39.458259840277776" lon="8.536356026823398"><ele>545.1666666666666</ele><time>2026-04-27T16:04:23.938Z</time></trkpt><trkpt lat="39.45834359696938" lon="8.536384476615643"><ele>548.0</ele><time>2026-04-27T16:04:24.939Z</time></trkpt><trkpt lat="39.458427602507015" lon="8.536414295268267"><ele>548.0</ele><time>2026-04-27T16:04:25.939Z</time></trkpt><trkpt lat="39.45850628406826" lon="8.536444567581732"><ele>548.0</ele><time>2026-04-27T16:04:26.938Z</time></trkpt><trkpt lat="39.45859912097171" lon="8.53648784648561"><ele>548.0</ele><time>2026-04-27T16:04:27.939Z</time></trkpt><trkpt lat="39.45868055798302" lon="8.536521364206326"><ele>548.0</ele><time>2026-04-27T16:04:28.939Z</time></trkpt><trkpt lat="39.45876692013918" lon="8.536551660086646"><ele>548.0</ele><time>2026-04-27T16:04:29.938Z</time></trkpt><trkpt lat="39.45884665454354" lon="8.536578073483724"><ele>548.0</ele><time>2026-04-27T16:04:30.939Z</time></trkpt><trkpt lat="39.458931053398416" lon="8.536603796718037"><ele>548.0</ele><time>2026-04-27T16:04:31.939Z</time></trkpt><trkpt lat="39.459024802122684" lon="8.536621515027397"><ele>548.0</ele><time>2026-04-27T16:04:32.939Z</time></trkpt><trkpt lat="39.4591118994164" lon="8.536634403039198"><ele>548.0</ele><time>2026-04-27T16:04:33.939Z</time></trkpt><trkpt lat="39.459183802383464" lon="8.53663867286772"><ele>548.0</ele><time>2026-04-27T16:04:34.939Z</time></trkpt><trkpt lat="39.459251419190835" lon="8.536624155676035"><ele>548.0</ele><time>2026-04-27T16:04:35.939Z</time></trkpt><trkpt lat="39.459313440326255" lon="8.536583015581343"><ele>548.0</ele><time>2026-04-27T16:04:36.939Z</time></trkpt><trkpt lat="39.45937473946401" lon="8.536535937986283"><ele>548.0</ele><time>2026-04-27T16:04:37.939Z</time></trkpt><trkpt lat="39.459429621360464" lon="8.536494436912953"><ele>548.0</ele><time>2026-04-27T16:04:38.939Z</time></trkpt><trkpt lat="39.45952711269338" lon="8.53645138298988"><ele>548.0</ele><time>2026-04-27T16:04:40.939Z</time></trkpt><trkpt lat="39.459596980324235" lon="8.536441813673267"><ele>548.0</ele><time>2026-04-27T16:04:41.939Z</time></trkpt><trkpt lat="39.45967483545007" lon="8.536445659972069"><ele>548.0</ele><time>2026-04-27T16:04:42.939Z</time></trkpt><trkpt lat="39.45974758529057" lon="8.536464099051752"><ele>548.0</ele><time>2026-04-27T16:04:43.939Z</time></trkpt><trkpt lat="39.45981200341201" lon="8.536487281922316"><ele>548.6666666666666</ele><time>2026-04-27T16:04:44.939Z</time></trkpt><trkpt lat="39.45988130882898" lon="8.536525083127339"><ele>549.3333333333333</ele><time>2026-04-27T16:04:45.939Z</time></trkpt><trkpt lat="39.45995440551396" lon="8.536564179903003"><ele>550.0</ele><time>2026-04-27T16:04:46.939Z</time></trkpt><trkpt lat="39.46002553315591" lon="8.536594425767358"><ele>550.6666666666666</ele><time>2026-04-27T16:04:47.939Z</time></trkpt><trkpt lat="39.46009580921309" lon="8.536595477983889"><ele>551.3333333333334</ele><time>2026-04-27T16:04:48.939Z</time></trkpt><trkpt lat="39.460159535346875" lon="8.536604955267597"><ele>552.0</ele><time>2026-04-27T16:04:49.939Z</time></trkpt><trkpt lat="39.460255483187694" lon="8.53660675457983"><ele>552.0</ele><time>2026-04-27T16:04:51.939Z</time></trkpt><trkpt lat="39.46038436007665" lon="8.536629139458242"><ele>552.0</ele><time>2026-04-27T16:04:53.939Z</time></trkpt><trkpt lat="39.460459621969605" lon="8.53666124113972"><ele>552.0</ele><time>2026-04-27T16:04:54.939Z</time></trkpt><trkpt lat="39.460520565268304" lon="8.53671164195147"><ele>552.0</ele><time>2026-04-27T16:04:55.939Z</time></trkpt><trkpt lat="39.46054942775859" lon="8.53683197282228"><ele>552.0</ele><time>2026-04-27T16:04:57.939Z</time></trkpt><trkpt lat="39.46053042150046" lon="8.536978114013456"><ele>553.5</ele><time>2026-04-27T16:04:59.939Z</time></trkpt><trkpt lat="39.46052041385378" lon="8.537061180477272"><ele>555.0</ele><time>2026-04-27T16:05:00.939Z</time></trkpt><trkpt lat="39.46050463382348" lon="8.537144803532001"><ele>556.5</ele><time>2026-04-27T16:05:01.939Z</time></trkpt><trkpt lat="39.460475769131016" lon="8.537240903822699"><ele>558.0</ele><time>2026-04-27T16:05:02.939Z</time></trkpt><trkpt lat="39.46043961937415" lon="8.53734148071218"><ele>559.5</ele><time>2026-04-27T16:05:03.939Z</time></trkpt><trkpt lat="39.46040036151111" lon="8.537445792128796"><ele>561.0</ele><time>2026-04-27T16:05:04.939Z</time></trkpt><trkpt lat="39.46035617171426" lon="8.537541409037278"><ele>562.0</ele><time>2026-04-27T16:05:05.939Z</time></trkpt><trkpt lat="39.46030757210986" lon="8.537634858488152"><ele>563.0</ele><time>2026-04-27T16:05:06.939Z</time></trkpt><trkpt lat="39.460272124560305" lon="8.53773304432398"><ele>564.0</ele><time>2026-04-27T16:05:07.939Z</time></trkpt><trkpt lat="39.46024388357482" lon="8.53783829073828"><ele>565.0</ele><time>2026-04-27T16:05:08.939Z</time></trkpt><trkpt lat="39.460228708761896" lon="8.537942847121483"><ele>566.0</ele><time>2026-04-27T16:05:09.939Z</time></trkpt><trkpt lat="39.46022504864977" lon="8.53805262064884"><ele>567.0</ele><time>2026-04-27T16:05:10.939Z</time></trkpt><trkpt lat="39.46022514075245" lon="8.538167256980083"><ele>568.8333333333334</ele><time>2026-04-27T16:05:11.939Z</time></trkpt><trkpt lat="39.46021915712248" lon="8.538278136779649"><ele>570.6666666666666</ele><time>2026-04-27T16:05:12.939Z</time></trkpt><trkpt lat="39.46022451170107" lon="8.53837652161386"><ele>572.5</ele><time>2026-04-27T16:05:13.939Z</time></trkpt><trkpt lat="39.46023673472259" lon="8.538480411260343"><ele>574.3333333333333</ele><time>2026-04-27T16:05:14.939Z</time></trkpt><trkpt lat="39.4602514669313" lon="8.538584085166377"><ele>576.1666666666666</ele><time>2026-04-27T16:05:15.939Z</time></trkpt><trkpt lat="39.46025625760743" lon="8.538674348765037"><ele>578.0</ele><time>2026-04-27T16:05:16.939Z</time></trkpt><trkpt lat="39.460252590380335" lon="8.538780833474187"><ele>578.6666666666666</ele><time>2026-04-27T16:05:17.939Z</time></trkpt><trkpt lat="39.46025513374972" lon="8.538883677394212"><ele>579.3333333333333</ele><time>2026-04-27T16:05:18.939Z</time></trkpt><trkpt lat="39.460260192777326" lon="8.538973001074716"><ele>580.0</ele><time>2026-04-27T16:05:19.939Z</time></trkpt><trkpt lat="39.46031398401043" lon="8.539097933951144"><ele>580.6666666666666</ele><time>2026-04-27T16:05:21.939Z</time></trkpt><trkpt lat="39.46036015801476" lon="8.539180828961507"><ele>581.3333333333334</ele><time>2026-04-27T16:05:22.939Z</time></trkpt><trkpt lat="39.460407910373085" lon="8.539277852430997"><ele>582.0</ele><time>2026-04-27T16:05:23.939Z</time></trkpt><trkpt lat="39.460464043624214" lon="8.539381505499573"><ele>582.0</ele><time>2026-04-27T16:05:24.939Z</time></trkpt><trkpt lat="39.46053009205069" lon="8.539501109497808"><ele>582.0</ele><time>2026-04-27T16:05:25.939Z</time></trkpt><trkpt lat="39.460584635238355" lon="8.539620866857918"><ele>582.0</ele><time>2026-04-27T16:05:26.939Z</time></trkpt><trkpt lat="39.46064068976576" lon="8.539736636572634"><ele>582.0</ele><time>2026-04-27T16:05:27.939Z</time></trkpt><trkpt lat="39.46068509853005" lon="8.539837263305625"><ele>582.0</ele><time>2026-04-27T16:05:28.939Z</time></trkpt><trkpt lat="39.460739111149216" lon="8.539935082662849"><ele>582.8333333333334</ele><time>2026-04-27T16:05:29.939Z</time></trkpt><trkpt lat="39.460795610245086" lon="8.540035813785048"><ele>583.6666666666666</ele><time>2026-04-27T16:05:30.939Z</time></trkpt><trkpt lat="39.460846236384356" lon="8.540126390776308"><ele>584.5</ele><time>2026-04-27T16:05:31.939Z</time></trkpt><trkpt lat="39.46088866090743" lon="8.540227677272371"><ele>585.3333333333333</ele><time>2026-04-27T16:05:32.939Z</time></trkpt><trkpt lat="39.460928233741015" lon="8.540318194820035"><ele>586.1666666666666</ele><time>2026-04-27T16:05:33.939Z</time></trkpt><trkpt lat="39.46098552648966" lon="8.540395061258474"><ele>587.0</ele><time>2026-04-27T16:05:34.939Z</time></trkpt><trkpt lat="39.46105218577988" lon="8.540451361475963"><ele>588.5714285714286</ele><time>2026-04-27T16:05:35.939Z</time></trkpt><trkpt lat="39.461122392395836" lon="8.540493615717471"><ele>590.1428571428572</ele><time>2026-04-27T16:05:36.939Z</time></trkpt><trkpt lat="39.461183382504515" lon="8.540537999194603"><ele>591.7142857142858</ele><time>2026-04-27T16:05:37.939Z</time></trkpt><trkpt lat="39.46124659419028" lon="8.540606754887294"><ele>593.2857142857143</ele><time>2026-04-27T16:05:38.939Z</time></trkpt><trkpt lat="39.461286765699136" lon="8.540677318851348"><ele>594.8571428571429</ele><time>2026-04-27T16:05:39.939Z</time></trkpt><trkpt lat="39.46131266822671" lon="8.540763484241172"><ele>596.4285714285714</ele><time>2026-04-27T16:05:40.939Z</time></trkpt><trkpt lat="39.461324183357505" lon="8.540852039164896"><ele>598.0</ele><time>2026-04-27T16:05:41.939Z</time></trkpt><trkpt lat="39.46134373387578" lon="8.540949969059852"><ele>598.3333333333334</ele><time>2026-04-27T16:05:42.939Z</time></trkpt><trkpt lat="39.46138157459433" lon="8.541064987129124"><ele>598.6666666666667</ele><time>2026-04-27T16:05:43.939Z</time></trkpt><trkpt lat="39.4614134878147" lon="8.54117069253072"><ele>599.0</ele><time>2026-04-27T16:05:44.939Z</time></trkpt><trkpt lat="39.46144885656968" lon="8.541272213858221"><ele>599.3333333333334</ele><time>2026-04-27T16:05:45.939Z</time></trkpt><trkpt lat="39.46147922456057" lon="8.541372469702745"><ele>599.6666666666666</ele><time>2026-04-27T16:05:46.939Z</time></trkpt><trkpt lat="39.461490904167306" lon="8.541463668292268"><ele>600.0</ele><time>2026-04-27T16:05:47.939Z</time></trkpt><trkpt lat="39.46149409114766" lon="8.541553154428483"><ele>602.4</ele><time>2026-04-27T16:05:48.939Z</time></trkpt><trkpt lat="39.461489791725505" lon="8.541726616590664"><ele>604.8</ele><time>2026-04-27T16:05:50.939Z</time></trkpt><trkpt lat="39.46149613753815" lon="8.54181698224935"><ele>607.2</ele><time>2026-04-27T16:05:51.939Z</time></trkpt><trkpt lat="39.46150188559472" lon="8.541918842015658"><ele>609.6</ele><time>2026-04-27T16:05:52.939Z</time></trkpt><trkpt lat="39.46149262288837" lon="8.542084169644156"><ele>612.0</ele><time>2026-04-27T16:05:54.939Z</time></trkpt><trkpt lat="39.461489019958286" lon="8.54224048817231"><ele>613.8333333333334</ele><time>2026-04-27T16:05:56.939Z</time></trkpt><trkpt lat="39.46146684726382" lon="8.542391886850009"><ele>615.6666666666666</ele><time>2026-04-27T16:05:58.939Z</time></trkpt><trkpt lat="39.46146450981278" lon="8.542510589288714"><ele>617.5</ele><time>2026-04-27T16:06:00.939Z</time></trkpt><trkpt lat="39.46147661159029" lon="8.542599809087482"><ele>619.3333333333333</ele><time>2026-04-27T16:06:01.939Z</time></trkpt><trkpt lat="39.46148596387545" lon="8.542704210150658"><ele>621.1666666666666</ele><time>2026-04-27T16:06:02.939Z</time></trkpt><trkpt lat="39.46148718531415" lon="8.542814534724528"><ele>623.0</ele><time>2026-04-27T16:06:03.939Z</time></trkpt><trkpt lat="39.46148701177548" lon="8.542908522838301"><ele>624.3333333333333</ele><time>2026-04-27T16:06:04.939Z</time></trkpt><trkpt lat="39.461473628285745" lon="8.542990793572748"><ele>625.6666666666666</ele><time>2026-04-27T16:06:05.939Z</time></trkpt><trkpt lat="39.46143574410144" lon="8.543069408230584"><ele>627.0</ele><time>2026-04-27T16:06:06.939Z</time></trkpt><trkpt lat="39.461382718473615" lon="8.543144101908467"><ele>628.3333333333334</ele><time>2026-04-27T16:06:07.939Z</time></trkpt><trkpt lat="39.461322713281774" lon="8.543219306611947"><ele>629.6666666666667</ele><time>2026-04-27T16:06:08.939Z</time></trkpt><trkpt lat="39.46125664274721" lon="8.5432810463383"><ele>631.0</ele><time>2026-04-27T16:06:09.939Z</time></trkpt><trkpt lat="39.46117983501855" lon="8.54332720565506"><ele>631.5</ele><time>2026-04-27T16:06:10.939Z</time></trkpt><trkpt lat="39.461101734208924" lon="8.54336248802314"><ele>632.0</ele><time>2026-04-27T16:06:11.939Z</time></trkpt><trkpt lat="39.461004451565174" lon="8.543404228057378"><ele>632.5</ele><time>2026-04-27T16:06:12.939Z</time></trkpt><trkpt lat="39.460914519411325" lon="8.543449231891826"><ele>633.0</ele><time>2026-04-27T16:06:13.939Z</time></trkpt><trkpt lat="39.460832744531146" lon="8.543472487119482"><ele>633.5</ele><time>2026-04-27T16:06:14.939Z</time></trkpt><trkpt lat="39.46076250214439" lon="8.543478207144705"><ele>634.0</ele><time>2026-04-27T16:06:15.939Z</time></trkpt><trkpt lat="39.46061726302841" lon="8.543445181467563"><ele>634.0</ele><time>2026-04-27T16:06:17.939Z</time></trkpt><trkpt lat="39.46054987765423" lon="8.543426795605432"><ele>634.0</ele><time>2026-04-27T16:06:18.939Z</time></trkpt><trkpt lat="39.46046340666189" lon="8.543419134652298"><ele>634.0</ele><time>2026-04-27T16:06:20.939Z</time></trkpt><trkpt lat="39.4605657878703" lon="8.543439512272123"><ele>634.0</ele><time>2026-04-27T16:09:59.936Z</time></trkpt><trkpt lat="39.46068970374904" lon="8.543454586613738"><ele>634.0</ele><time>2026-04-27T16:10:01.936Z</time></trkpt><trkpt lat="39.460812085232845" lon="8.543480778563136"><ele>634.0</ele><time>2026-04-27T16:10:03.936Z</time></trkpt><trkpt lat="39.46094005102699" lon="8.543461476487412"><ele>634.0</ele><time>2026-04-27T16:10:05.936Z</time></trkpt><trkpt lat="39.461019305013856" lon="8.543420966085936"><ele>634.0</ele><time>2026-04-27T16:10:06.936Z</time></trkpt><trkpt lat="39.46109883388147" lon="8.543366291262389"><ele>634.0</ele><time>2026-04-27T16:10:07.936Z</time></trkpt><trkpt lat="39.461177232806385" lon="8.543315900325712"><ele>634.0</ele><time>2026-04-27T16:10:08.936Z</time></trkpt><trkpt lat="39.46124754070731" lon="8.543275620925773"><ele>633.5</ele><time>2026-04-27T16:10:09.936Z</time></trkpt><trkpt lat="39.4613426524873" lon="8.543227660730341"><ele>633.0</ele><time>2026-04-27T16:10:11.936Z</time></trkpt><trkpt lat="39.46140816127418" lon="8.54311188944245"><ele>632.5</ele><time>2026-04-27T16:10:13.936Z</time></trkpt><trkpt lat="39.46144578312153" lon="8.543036661505928"><ele>632.0</ele><time>2026-04-27T16:10:14.936Z</time></trkpt><trkpt lat="39.46147412477218" lon="8.542960775542703"><ele>631.5</ele><time>2026-04-27T16:10:15.936Z</time></trkpt><trkpt lat="39.461490301104455" lon="8.542881877387991"><ele>631.0</ele><time>2026-04-27T16:10:16.936Z</time></trkpt><trkpt lat="39.46149467988157" lon="8.542720410755141"><ele>629.6666666666667</ele><time>2026-04-27T16:10:18.936Z</time></trkpt><trkpt lat="39.461490052750364" lon="8.542633795996936"><ele>628.3333333333334</ele><time>2026-04-27T16:10:19.936Z</time></trkpt><trkpt lat="39.46147746050956" lon="8.542547833431671"><ele>627.0</ele><time>2026-04-27T16:10:20.936Z</time></trkpt><trkpt lat="39.46147015685881" lon="8.542454636792057"><ele>625.6666666666666</ele><time>2026-04-27T16:10:21.936Z</time></trkpt><trkpt lat="39.46147142719037" lon="8.542364548965962"><ele>624.3333333333333</ele><time>2026-04-27T16:10:22.936Z</time></trkpt><trkpt lat="39.46150243368311" lon="8.542243683308527"><ele>623.0</ele><time>2026-04-27T16:10:24.936Z</time></trkpt><trkpt lat="39.46151357186355" lon="8.542137911915693"><ele>620.8</ele><time>2026-04-27T16:10:26.936Z</time></trkpt><trkpt lat="39.46151143649696" lon="8.542004238137592"><ele>618.5999999999999</ele><time>2026-04-27T16:10:28.936Z</time></trkpt><trkpt lat="39.46151454838139" lon="8.54185581220957"><ele>616.4000000000001</ele><time>2026-04-27T16:10:30.936Z</time></trkpt><trkpt lat="39.4615157470294" lon="8.541696368608857"><ele>614.2</ele><time>2026-04-27T16:10:32.936Z</time></trkpt><trkpt lat="39.46151182672716" lon="8.541614344788881"><ele>612.0</ele><time>2026-04-27T16:10:33.936Z</time></trkpt><trkpt lat="39.46151206549137" lon="8.541526474780735"><ele>612.0</ele><time>2026-04-27T16:10:34.936Z</time></trkpt><trkpt lat="39.46150668234281" lon="8.541361966291543"><ele>612.0</ele><time>2026-04-27T16:10:36.936Z</time></trkpt><trkpt lat="39.46145007199391" lon="8.541207221325545"><ele>612.0</ele><time>2026-04-27T16:10:38.936Z</time></trkpt><trkpt lat="39.4614228200394" lon="8.541122234706984"><ele>612.0</ele><time>2026-04-27T16:10:39.936Z</time></trkpt><trkpt lat="39.46139882138716" lon="8.541043565249307"><ele>612.0</ele><time>2026-04-27T16:10:40.936Z</time></trkpt><trkpt lat="39.46137765729707" lon="8.54095449937592"><ele>610.0</ele><time>2026-04-27T16:10:41.936Z</time></trkpt><trkpt lat="39.461353903689194" lon="8.540874798049094"><ele>608.0</ele><time>2026-04-27T16:10:42.936Z</time></trkpt><trkpt lat="39.46133391334652" lon="8.540787851787101"><ele>606.0</ele><time>2026-04-27T16:10:43.936Z</time></trkpt><trkpt lat="39.461304372576286" lon="8.540698847162135"><ele>604.0</ele><time>2026-04-27T16:10:44.936Z</time></trkpt><trkpt lat="39.461228741297255" lon="8.540564165382197"><ele>602.0</ele><time>2026-04-27T16:10:46.935Z</time></trkpt><trkpt lat="39.4611699526065" lon="8.540520562297818"><ele>600.0</ele><time>2026-04-27T16:10:47.936Z</time></trkpt><trkpt lat="39.46106224703205" lon="8.540416153655244"><ele>597.8333333333334</ele><time>2026-04-27T16:10:49.936Z</time></trkpt><trkpt lat="39.460996930400675" lon="8.540369052323948"><ele>595.6666666666666</ele><time>2026-04-27T16:10:50.936Z</time></trkpt><trkpt lat="39.46093944600627" lon="8.540300839782729"><ele>593.5</ele><time>2026-04-27T16:10:51.936Z</time></trkpt><trkpt lat="39.46088747926446" lon="8.540218622716228"><ele>591.3333333333333</ele><time>2026-04-27T16:10:52.936Z</time></trkpt><trkpt lat="39.4608457262724" lon="8.540122120583565"><ele>589.1666666666666</ele><time>2026-04-27T16:10:53.936Z</time></trkpt><trkpt lat="39.46080062840886" lon="8.540025713572113"><ele>587.0</ele><time>2026-04-27T16:10:54.936Z</time></trkpt><trkpt lat="39.4607621321249" lon="8.539942251086092"><ele>587.0</ele><time>2026-04-27T16:10:55.936Z</time></trkpt><trkpt lat="39.46072366147191" lon="8.539861237368124"><ele>587.0</ele><time>2026-04-27T16:10:56.936Z</time></trkpt><trkpt lat="39.460678293094425" lon="8.539782598387585"><ele>587.0</ele><time>2026-04-27T16:10:57.936Z</time></trkpt><trkpt lat="39.46063028853915" lon="8.539695915296868"><ele>587.0</ele><time>2026-04-27T16:10:58.936Z</time></trkpt><trkpt lat="39.460576422282976" lon="8.539597264478246"><ele>587.0</ele><time>2026-04-27T16:10:59.936Z</time></trkpt><trkpt lat="39.46053703012899" lon="8.539514284127968"><ele>587.0</ele><time>2026-04-27T16:11:00.936Z</time></trkpt><trkpt lat="39.46048516168704" lon="8.539407311441245"><ele>587.0</ele><time>2026-04-27T16:11:01.936Z</time></trkpt><trkpt lat="39.46043673704912" lon="8.539309584277985"><ele>587.0</ele><time>2026-04-27T16:11:02.936Z</time></trkpt><trkpt lat="39.46038149472513" lon="8.539211494338632"><ele>587.0</ele><time>2026-04-27T16:11:03.936Z</time></trkpt><trkpt lat="39.46033643180973" lon="8.539107644220115"><ele>587.0</ele><time>2026-04-27T16:11:04.936Z</time></trkpt><trkpt lat="39.46029151674399" lon="8.538999355383535"><ele>587.0</ele><time>2026-04-27T16:11:05.936Z</time></trkpt><trkpt lat="39.4602597170722" lon="8.538897428256284"><ele>587.0</ele><time>2026-04-27T16:11:06.936Z</time></trkpt><trkpt lat="39.46024813366993" lon="8.5387992317925"><ele>587.0</ele><time>2026-04-27T16:11:07.936Z</time></trkpt><trkpt lat="39.460248941684284" lon="8.538698027447369"><ele>587.0</ele><time>2026-04-27T16:11:08.936Z</time></trkpt><trkpt lat="39.46025185995195" lon="8.538584742610979"><ele>587.0</ele><time>2026-04-27T16:11:09.936Z</time></trkpt><trkpt lat="39.46024731096358" lon="8.538483724408081"><ele>587.0</ele><time>2026-04-27T16:11:10.936Z</time></trkpt><trkpt lat="39.46023971480362" lon="8.53839389971997"><ele>587.0</ele><time>2026-04-27T16:11:11.936Z</time></trkpt><trkpt lat="39.46022991805319" lon="8.538295689304237"><ele>585.7142857142858</ele><time>2026-04-27T16:11:12.936Z</time></trkpt><trkpt lat="39.4602224539836" lon="8.538210935948884"><ele>584.4285714285714</ele><time>2026-04-27T16:11:13.936Z</time></trkpt><trkpt lat="39.46022513745139" lon="8.53810986853996"><ele>583.1428571428571</ele><time>2026-04-27T16:11:14.936Z</time></trkpt><trkpt lat="39.46023619529435" lon="8.53801679747851"><ele>581.8571428571429</ele><time>2026-04-27T16:11:15.936Z</time></trkpt><trkpt lat="39.460249038353126" lon="8.537910099583764"><ele>580.5714285714286</ele><time>2026-04-27T16:11:16.936Z</time></trkpt><trkpt lat="39.46025748575175" lon="8.537821312865765"><ele>579.2857142857143</ele><time>2026-04-27T16:11:17.936Z</time></trkpt><trkpt lat="39.46027818079049" lon="8.537721496340225"><ele>578.0</ele><time>2026-04-27T16:11:18.936Z</time></trkpt><trkpt lat="39.460321378544435" lon="8.5376077140355"><ele>575.8</ele><time>2026-04-27T16:11:19.936Z</time></trkpt><trkpt lat="39.46037127008418" lon="8.537511696267913"><ele>573.5999999999999</ele><time>2026-04-27T16:11:20.936Z</time></trkpt><trkpt lat="39.4604245339382" lon="8.53740767112837"><ele>571.4000000000001</ele><time>2026-04-27T16:11:21.936Z</time></trkpt><trkpt lat="39.4604679303104" lon="8.537306834398128"><ele>569.2</ele><time>2026-04-27T16:11:22.936Z</time></trkpt><trkpt lat="39.46050212813264" lon="8.537182354972693"><ele>567.0</ele><time>2026-04-27T16:11:23.936Z</time></trkpt><trkpt lat="39.460530706112735" lon="8.537056349014934"><ele>564.8333333333334</ele><time>2026-04-27T16:11:24.936Z</time></trkpt><trkpt lat="39.460549619497705" lon="8.536942080036887"><ele>562.6666666666666</ele><time>2026-04-27T16:11:25.936Z</time></trkpt><trkpt lat="39.46056804045207" lon="8.536792599321576"><ele>560.5</ele><time>2026-04-27T16:11:27.936Z</time></trkpt><trkpt lat="39.46052588393141" lon="8.536706237050119"><ele>558.3333333333333</ele><time>2026-04-27T16:11:29.936Z</time></trkpt><trkpt lat="39.46047427771214" lon="8.536651484565052"><ele>556.1666666666666</ele><time>2026-04-27T16:11:30.936Z</time></trkpt><trkpt lat="39.46041578565279" lon="8.536620272775641"><ele>554.0</ele><time>2026-04-27T16:11:31.936Z</time></trkpt><trkpt lat="39.460343076715695" lon="8.536598712653825"><ele>553.6666666666666</ele><time>2026-04-27T16:11:32.936Z</time></trkpt><trkpt lat="39.46026697212798" lon="8.536591497206919"><ele>553.3333333333333</ele><time>2026-04-27T16:11:33.936Z</time></trkpt><trkpt lat="39.46018485225467" lon="8.536592507585409"><ele>553.0</ele><time>2026-04-27T16:11:34.936Z</time></trkpt><trkpt lat="39.46009827363763" lon="8.536596393955023"><ele>552.6666666666666</ele><time>2026-04-27T16:11:35.936Z</time></trkpt><trkpt lat="39.46001099856309" lon="8.536586372510293"><ele>552.3333333333334</ele><time>2026-04-27T16:11:36.936Z</time></trkpt><trkpt lat="39.4599162330393" lon="8.536552598011168"><ele>552.0</ele><time>2026-04-27T16:11:37.936Z</time></trkpt><trkpt lat="39.459827336291305" lon="8.536513157302473"><ele>552.0</ele><time>2026-04-27T16:11:38.936Z</time></trkpt><trkpt lat="39.45975170510636" lon="8.536479151361974"><ele>552.0</ele><time>2026-04-27T16:11:39.936Z</time></trkpt><trkpt lat="39.459673523089556" lon="8.536453272960612"><ele>552.0</ele><time>2026-04-27T16:11:40.936Z</time></trkpt><trkpt lat="39.45960086025947" lon="8.536447103788339"><ele>552.0</ele><time>2026-04-27T16:11:41.936Z</time></trkpt><trkpt lat="39.45953244666041" lon="8.536449666231835"><ele>552.0</ele><time>2026-04-27T16:11:42.936Z</time></trkpt><trkpt lat="39.459465110918835" lon="8.536470759166372"><ele>552.0</ele><time>2026-04-27T16:11:43.936Z</time></trkpt><trkpt lat="39.45936165300644" lon="8.536530398639833"><ele>551.3333333333334</ele><time>2026-04-27T16:11:45.936Z</time></trkpt><trkpt lat="39.459260908143705" lon="8.536611576064278"><ele>550.6666666666666</ele><time>2026-04-27T16:11:47.936Z</time></trkpt><trkpt lat="39.459196163329345" lon="8.536653962777164"><ele>550.0</ele><time>2026-04-27T16:11:48.936Z</time></trkpt><trkpt lat="39.45912355234811" lon="8.536665012953058"><ele>549.3333333333333</ele><time>2026-04-27T16:11:49.936Z</time></trkpt><trkpt lat="39.459046282092515" lon="8.53663577403429"><ele>548.6666666666666</ele><time>2026-04-27T16:11:50.936Z</time></trkpt><trkpt lat="39.45896789448663" lon="8.536602735029659"><ele>548.0</ele><time>2026-04-27T16:11:51.936Z</time></trkpt><trkpt lat="39.45888411071713" lon="8.536580093035004"><ele>548.0</ele><time>2026-04-27T16:11:52.936Z</time></trkpt><trkpt lat="39.45879292836552" lon="8.536557488166295"><ele>548.0</ele><time>2026-04-27T16:11:53.936Z</time></trkpt><trkpt lat="39.458711634290225" lon="8.536533764779538"><ele>548.0</ele><time>2026-04-27T16:11:54.936Z</time></trkpt><trkpt lat="39.45862513858857" lon="8.536503216915952"><ele>548.0</ele><time>2026-04-27T16:11:55.936Z</time></trkpt><trkpt lat="39.458538194782555" lon="8.536462344955067"><ele>548.0</ele><time>2026-04-27T16:11:56.936Z</time></trkpt><trkpt lat="39.45844727296768" lon="8.536430557775736"><ele>548.0</ele><time>2026-04-27T16:11:57.936Z</time></trkpt><trkpt lat="39.45838176429942" lon="8.536398266440688"><ele>548.0</ele><time>2026-04-27T16:11:58.936Z</time></trkpt><trkpt lat="39.45831527082461" lon="8.536377086639025"><ele>548.0</ele><time>2026-04-27T16:11:59.936Z</time></trkpt><trkpt lat="39.45824656429236" lon="8.536352173960172"><ele>548.0</ele><time>2026-04-27T16:12:00.936Z</time></trkpt><trkpt lat="39.45818047118429" lon="8.536324501927645"><ele>548.0</ele><time>2026-04-27T16:12:01.936Z</time></trkpt><trkpt lat="39.45805653352996" lon="8.536276173450506"><ele>548.0</ele><time>2026-04-27T16:12:03.936Z</time></trkpt><trkpt lat="39.45797452692879" lon="8.53625201983565"><ele>549.0</ele><time>2026-04-27T16:12:04.936Z</time></trkpt><trkpt lat="39.45789375199685" lon="8.536233829818265"><ele>550.0</ele><time>2026-04-27T16:12:05.936Z</time></trkpt><trkpt lat="39.45782336743475" lon="8.536208799943173"><ele>551.0</ele><time>2026-04-27T16:12:06.936Z</time></trkpt><trkpt lat="39.45775465743312" lon="8.536161309072819"><ele>552.0</ele><time>2026-04-27T16:12:07.936Z</time></trkpt><trkpt lat="39.45769034603163" lon="8.536079894483366"><ele>553.0</ele><time>2026-04-27T16:12:08.936Z</time></trkpt><trkpt lat="39.45763738854857" lon="8.53600778706685"><ele>554.0</ele><time>2026-04-27T16:12:09.936Z</time></trkpt><trkpt lat="39.45758568804256" lon="8.535942439764048"><ele>550.1666666666666</ele><time>2026-04-27T16:12:10.936Z</time></trkpt><trkpt lat="39.45753321047637" lon="8.535883413444758"><ele>546.3333333333333</ele><time>2026-04-27T16:12:11.936Z</time></trkpt><trkpt lat="39.457477257368424" lon="8.535816285582596"><ele>542.5</ele><time>2026-04-27T16:12:12.936Z</time></trkpt><trkpt lat="39.45742961032036" lon="8.535738992909916"><ele>538.6666666666666</ele><time>2026-04-27T16:12:13.936Z</time></trkpt><trkpt lat="39.4573810616948" lon="8.535656391503133"><ele>534.8333333333334</ele><time>2026-04-27T16:12:14.936Z</time></trkpt><trkpt lat="39.45733273178933" lon="8.535588590331718"><ele>531.0</ele><time>2026-04-27T16:12:15.936Z</time></trkpt><trkpt lat="39.45723199590779" lon="8.535465859280805"><ele>531.0</ele><time>2026-04-27T16:12:17.936Z</time></trkpt><trkpt lat="39.457181573258694" lon="8.53541582304105"><ele>531.0</ele><time>2026-04-27T16:12:18.936Z</time></trkpt><trkpt lat="39.45711056989908" lon="8.535354714813655"><ele>531.0</ele><time>2026-04-27T16:12:19.936Z</time></trkpt><trkpt lat="39.45702504844409" lon="8.535283922536195"><ele>531.0</ele><time>2026-04-27T16:12:20.936Z</time></trkpt><trkpt lat="39.45694411244918" lon="8.53522295735123"><ele>531.0</ele><time>2026-04-27T16:12:21.936Z</time></trkpt><trkpt lat="39.45685909218605" lon="8.535150979940386"><ele>531.0</ele><time>2026-04-27T16:12:22.936Z</time></trkpt><trkpt lat="39.45678605753356" lon="8.535080847351155"><ele>529.1666666666666</ele><time>2026-04-27T16:12:23.936Z</time></trkpt><trkpt lat="39.45672807166057" lon="8.53502455664584"><ele>527.3333333333334</ele><time>2026-04-27T16:12:24.936Z</time></trkpt><trkpt lat="39.456634642757464" lon="8.53496996895912"><ele>525.5</ele><time>2026-04-27T16:12:26.936Z</time></trkpt><trkpt lat="39.45655378125787" lon="8.534983687259537"><ele>523.6666666666667</ele><time>2026-04-27T16:12:28.936Z</time></trkpt><trkpt lat="39.45646903582337" lon="8.535020108175285"><ele>521.8333333333334</ele><time>2026-04-27T16:12:30.936Z</time></trkpt><trkpt lat="39.456371109840305" lon="8.535059360111289"><ele>520.0</ele><time>2026-04-27T16:12:32.936Z</time></trkpt><trkpt lat="39.456276698113406" lon="8.53511701976581"><ele>518.8</ele><time>2026-04-27T16:12:34.936Z</time></trkpt><trkpt lat="39.456175476429394" lon="8.535186627506079"><ele>517.6</ele><time>2026-04-27T16:12:36.936Z</time></trkpt><trkpt lat="39.456117946763996" lon="8.535231358223816"><ele>516.4</ele><time>2026-04-27T16:12:37.936Z</time></trkpt><trkpt lat="39.45601591490093" lon="8.53531701234881"><ele>515.2</ele><time>2026-04-27T16:12:39.934Z</time></trkpt><trkpt lat="39.45591286058529" lon="8.535416989843995"><ele>514.0</ele><time>2026-04-27T16:12:41.935Z</time></trkpt><trkpt lat="39.45584817287767" lon="8.535466964776164"><ele>514.0</ele><time>2026-04-27T16:12:42.935Z</time></trkpt><trkpt lat="39.45576914335772" lon="8.535504116208138"><ele>514.0</ele><time>2026-04-27T16:12:43.935Z</time></trkpt><trkpt lat="39.45568427041638" lon="8.535526657641496"><ele>514.0</ele><time>2026-04-27T16:12:44.935Z</time></trkpt><trkpt lat="39.45558473769193" lon="8.535537219999824"><ele>514.0</ele><time>2026-04-27T16:12:45.935Z</time></trkpt><trkpt lat="39.455471803137215" lon="8.535553939588443"><ele>514.0</ele><time>2026-04-27T16:12:46.934Z</time></trkpt><trkpt lat="39.45536334916046" lon="8.535571917208854"><ele>513.8</ele><time>2026-04-27T16:12:47.934Z</time></trkpt><trkpt lat="39.45527038022101" lon="8.53559189896609"><ele>513.5999999999999</ele><time>2026-04-27T16:12:48.935Z</time></trkpt><trkpt lat="39.455200094942846" lon="8.535604821226476"><ele>513.4</ele><time>2026-04-27T16:12:49.934Z</time></trkpt><trkpt lat="39.45513525670951" lon="8.535603444987874"><ele>513.1999999999999</ele><time>2026-04-27T16:12:50.934Z</time></trkpt><trkpt lat="39.455058539363925" lon="8.53551076046658"><ele>513.0</ele><time>2026-04-27T16:12:52.934Z</time></trkpt><trkpt lat="39.45504518450404" lon="8.53533697460462"><ele>513.0</ele><time>2026-04-27T16:12:54.934Z</time></trkpt><trkpt lat="39.45501860696685" lon="8.535226574872771"><ele>513.0</ele><time>2026-04-27T16:12:55.934Z</time></trkpt><trkpt lat="39.45497682576639" lon="8.535133322538625"><ele>513.0</ele><time>2026-04-27T16:12:56.934Z</time></trkpt><trkpt lat="39.45492007136467" lon="8.535025563427721"><ele>513.0</ele><time>2026-04-27T16:12:57.934Z</time></trkpt><trkpt lat="39.45485031756831" lon="8.53491799934516"><ele>513.0</ele><time>2026-04-27T16:12:58.934Z</time></trkpt><trkpt lat="39.45477703509455" lon="8.534826229605157"><ele>513.0</ele><time>2026-04-27T16:12:59.934Z</time></trkpt><trkpt lat="39.45471993307666" lon="8.53476691487541"><ele>513.0</ele><time>2026-04-27T16:13:00.934Z</time></trkpt><trkpt lat="39.454659105018116" lon="8.534743923620068"><ele>513.0</ele><time>2026-04-27T16:13:02.934Z</time></trkpt><trkpt lat="39.454583224765244" lon="8.534787342243279"><ele>513.0</ele><time>2026-04-27T16:14:14.934Z</time></trkpt><trkpt lat="39.45449018668958" lon="8.534849383916118"><ele>513.0</ele><time>2026-04-27T16:14:55.933Z</time></trkpt><trkpt lat="39.45439107577277" lon="8.534893258665104"><ele>513.0</ele><time>2026-04-27T16:14:57.933Z</time></trkpt><trkpt lat="39.454333329057874" lon="8.534929270825733"><ele>512.0</ele><time>2026-04-27T16:14:58.933Z</time></trkpt><trkpt lat="39.45422903361472" lon="8.53498511020213"><ele>511.0</ele><time>2026-04-27T16:15:00.933Z</time></trkpt><trkpt lat="39.454167193516795" lon="8.535013116093083"><ele>510.0</ele><time>2026-04-27T16:15:02.933Z</time></trkpt><trkpt lat="39.4540935648237" lon="8.53507358015263"><ele>509.0</ele><time>2026-04-27T16:15:04.933Z</time></trkpt><trkpt lat="39.45403582912368" lon="8.535120462658064"><ele>508.0</ele><time>2026-04-27T16:15:05.933Z</time></trkpt><trkpt lat="39.45396419394844" lon="8.535172580482461"><ele>507.0</ele><time>2026-04-27T16:15:06.933Z</time></trkpt><trkpt lat="39.45388771879159" lon="8.535215900246826"><ele>507.0</ele><time>2026-04-27T16:15:07.933Z</time></trkpt><trkpt lat="39.453804124192374" lon="8.535266404125423"><ele>507.0</ele><time>2026-04-27T16:15:08.933Z</time></trkpt><trkpt lat="39.45372821012014" lon="8.535307993521103"><ele>507.0</ele><time>2026-04-27T16:15:09.933Z</time></trkpt><trkpt lat="39.453653895071355" lon="8.535344354911766"><ele>507.0</ele><time>2026-04-27T16:15:10.933Z</time></trkpt><trkpt lat="39.45358697308969" lon="8.535379772784342"><ele>507.0</ele><time>2026-04-27T16:15:11.933Z</time></trkpt><trkpt lat="39.453526893312294" lon="8.535415001396338"><ele>507.0</ele><time>2026-04-27T16:15:12.933Z</time></trkpt><trkpt lat="39.45343562078787" lon="8.535459285209509"><ele>503.5</ele><time>2026-04-27T16:15:14.933Z</time></trkpt><trkpt lat="39.45335124556879" lon="8.53550564221264"><ele>500.0</ele><time>2026-04-27T16:15:16.933Z</time></trkpt><trkpt lat="39.453277618903336" lon="8.53553858807955"><ele>496.5</ele><time>2026-04-27T16:15:17.933Z</time></trkpt><trkpt lat="39.4532024563695" lon="8.535561193672095"><ele>493.0</ele><time>2026-04-27T16:15:18.933Z</time></trkpt><trkpt lat="39.4531263038169" lon="8.535591388741654"><ele>489.5</ele><time>2026-04-27T16:15:19.933Z</time></trkpt><trkpt lat="39.45304713151477" lon="8.535618503431866"><ele>486.0</ele><time>2026-04-27T16:15:20.933Z</time></trkpt><trkpt lat="39.45297217119911" lon="8.535647880806803"><ele>483.0</ele><time>2026-04-27T16:15:21.933Z</time></trkpt><trkpt lat="39.45290156108864" lon="8.535677006055847"><ele>480.0</ele><time>2026-04-27T16:15:22.933Z</time></trkpt><trkpt lat="39.45283315661133" lon="8.535701308293373"><ele>477.0</ele><time>2026-04-27T16:15:23.933Z</time></trkpt><trkpt lat="39.452762302488" lon="8.53571636172482"><ele>474.0</ele><time>2026-04-27T16:15:24.933Z</time></trkpt><trkpt lat="39.452648753677245" lon="8.535742566411958"><ele>471.0</ele><time>2026-04-27T16:15:26.933Z</time></trkpt><trkpt lat="39.4525796951683" lon="8.535764717355587"><ele>468.0</ele><time>2026-04-27T16:15:27.933Z</time></trkpt><trkpt lat="39.45251528486786" lon="8.535777687257582"><ele>468.0</ele><time>2026-04-27T16:15:28.934Z</time></trkpt><trkpt lat="39.452444025691264" lon="8.535791286245715"><ele>468.00000000000006</ele><time>2026-04-27T16:15:29.934Z</time></trkpt><trkpt lat="39.45236513608299" lon="8.535804243880815"><ele>468.0</ele><time>2026-04-27T16:15:30.934Z</time></trkpt><trkpt lat="39.45228929822228" lon="8.535820526181771"><ele>468.0</ele><time>2026-04-27T16:15:31.934Z</time></trkpt><trkpt lat="39.45222642110055" lon="8.535842248377836"><ele>468.00000000000006</ele><time>2026-04-27T16:15:32.934Z</time></trkpt><trkpt lat="39.452160854225205" lon="8.535862727587963"><ele>468.0</ele><time>2026-04-27T16:15:33.934Z</time></trkpt><trkpt lat="39.45208410916355" lon="8.535899096991029"><ele>468.0</ele><time>2026-04-27T16:15:34.934Z</time></trkpt><trkpt lat="39.45200591366287" lon="8.535930825627409"><ele>464.8333333333333</ele><time>2026-04-27T16:15:35.934Z</time></trkpt><trkpt lat="39.45193068072477" lon="8.535958311302348"><ele>461.66666666666663</ele><time>2026-04-27T16:15:36.934Z</time></trkpt><trkpt lat="39.45185005359115" lon="8.535953420187054"><ele>458.5</ele><time>2026-04-27T16:15:37.934Z</time></trkpt><trkpt lat="39.451768280477275" lon="8.535953070372782"><ele>455.3333333333333</ele><time>2026-04-27T16:15:38.934Z</time></trkpt><trkpt lat="39.45169813622997" lon="8.535948499010395"><ele>452.16666666666663</ele><time>2026-04-27T16:15:39.934Z</time></trkpt><trkpt lat="39.451568698620726" lon="8.53594245388571"><ele>449.0</ele><time>2026-04-27T16:15:41.934Z</time></trkpt><trkpt lat="39.45144904323295" lon="8.535956367125914"><ele>448.99999999999994</ele><time>2026-04-27T16:15:43.934Z</time></trkpt><trkpt lat="39.45134870807296" lon="8.536023258349179"><ele>449.0</ele><time>2026-04-27T16:15:45.934Z</time></trkpt><trkpt lat="39.451287422879325" lon="8.536062543268148"><ele>449.0</ele><time>2026-04-27T16:15:46.934Z</time></trkpt><trkpt lat="39.451230217538125" lon="8.536103144343532"><ele>449.0</ele><time>2026-04-27T16:15:47.934Z</time></trkpt><trkpt lat="39.45117078558674" lon="8.536142528723648"><ele>448.99999999999994</ele><time>2026-04-27T16:15:48.934Z</time></trkpt><trkpt lat="39.451108612410124" lon="8.536168901652841"><ele>449.0</ele><time>2026-04-27T16:15:49.934Z</time></trkpt><trkpt lat="39.45098467725685" lon="8.536204205041468"><ele>445.8333333333333</ele><time>2026-04-27T16:15:51.934Z</time></trkpt><trkpt lat="39.45091269711238" lon="8.536208726673209"><ele>442.66666666666663</ele><time>2026-04-27T16:15:52.934Z</time></trkpt><trkpt lat="39.45084530068821" lon="8.536213440972276"><ele>439.5</ele><time>2026-04-27T16:15:53.934Z</time></trkpt><trkpt lat="39.45077220873546" lon="8.53621102904676"><ele>436.33333333333337</ele><time>2026-04-27T16:15:54.934Z</time></trkpt><trkpt lat="39.45070902741289" lon="8.53619940379374"><ele>433.1666666666667</ele><time>2026-04-27T16:15:55.934Z</time></trkpt><trkpt lat="39.450577690395946" lon="8.53618665192275"><ele>430.0</ele><time>2026-04-27T16:15:57.934Z</time></trkpt><trkpt lat="39.45044009213848" lon="8.536227206268755"><ele>427.57142857142856</ele><time>2026-04-27T16:15:59.934Z</time></trkpt><trkpt lat="39.45036554696642" lon="8.536255067485634"><ele>425.14285714285717</ele><time>2026-04-27T16:16:00.934Z</time></trkpt><trkpt lat="39.450297449836974" lon="8.536276322095189"><ele>422.7142857142857</ele><time>2026-04-27T16:16:01.934Z</time></trkpt><trkpt lat="39.45023431526696" lon="8.536300120274229"><ele>420.2857142857143</ele><time>2026-04-27T16:16:02.934Z</time></trkpt><trkpt lat="39.450163085474614" lon="8.536331851503313"><ele>417.8571428571429</ele><time>2026-04-27T16:16:03.934Z</time></trkpt><trkpt lat="39.45008891126107" lon="8.536343890827604"><ele>415.42857142857144</ele><time>2026-04-27T16:16:04.934Z</time></trkpt><trkpt lat="39.45002114466082" lon="8.536362105708848"><ele>413.0</ele><time>2026-04-27T16:16:05.934Z</time></trkpt><trkpt lat="39.44994420407341" lon="8.53639474292727"><ele>412.99999999999994</ele><time>2026-04-27T16:16:06.934Z</time></trkpt><trkpt lat="39.44986389899417" lon="8.536439643938358"><ele>413.0</ele><time>2026-04-27T16:16:07.934Z</time></trkpt><trkpt lat="39.449790666411324" lon="8.536477533057736"><ele>413.0</ele><time>2026-04-27T16:16:08.934Z</time></trkpt><trkpt lat="39.44970767400075" lon="8.536505815292434"><ele>413.0</ele><time>2026-04-27T16:16:09.934Z</time></trkpt><trkpt lat="39.449613998316565" lon="8.536507645335126"><ele>412.99999999999994</ele><time>2026-04-27T16:16:10.934Z</time></trkpt><trkpt lat="39.449546005273255" lon="8.536493660821144"><ele>413.0</ele><time>2026-04-27T16:16:11.934Z</time></trkpt><trkpt lat="39.44945137296003" lon="8.536405547915262"><ele>411.16666666666663</ele><time>2026-04-27T16:16:13.934Z</time></trkpt><trkpt lat="39.449410719725684" lon="8.536338939913925"><ele>409.3333333333333</ele><time>2026-04-27T16:16:14.934Z</time></trkpt><trkpt lat="39.44936569290843" lon="8.536274194387165"><ele>407.5</ele><time>2026-04-27T16:16:15.934Z</time></trkpt><trkpt lat="39.4493035278363" lon="8.536218158961194"><ele>405.66666666666663</ele><time>2026-04-27T16:16:16.934Z</time></trkpt><trkpt lat="39.44917140024745" lon="8.536187055760706"><ele>403.8333333333333</ele><time>2026-04-27T16:16:18.934Z</time></trkpt><trkpt lat="39.44908339144321" lon="8.536198095704258"><ele>402.0</ele><time>2026-04-27T16:16:19.934Z</time></trkpt><trkpt lat="39.44897794673781" lon="8.536214890710207"><ele>401.40000000000003</ele><time>2026-04-27T16:16:20.934Z</time></trkpt><trkpt lat="39.44887081460907" lon="8.536221142069174"><ele>400.8</ele><time>2026-04-27T16:16:21.934Z</time></trkpt><trkpt lat="39.44876828439386" lon="8.536201990715359"><ele>400.2</ele><time>2026-04-27T16:16:22.934Z</time></trkpt><trkpt lat="39.44867184836364" lon="8.536170939323597"><ele>399.6</ele><time>2026-04-27T16:16:23.934Z</time></trkpt><trkpt lat="39.44859019542768" lon="8.536118870493295"><ele>399.0</ele><time>2026-04-27T16:16:24.934Z</time></trkpt><trkpt lat="39.44853073656801" lon="8.536044893383934"><ele>399.0</ele><time>2026-04-27T16:16:25.934Z</time></trkpt><trkpt lat="39.44846768036464" lon="8.535959646424061"><ele>399.0</ele><time>2026-04-27T16:16:26.934Z</time></trkpt><trkpt lat="39.44840889000337" lon="8.535856952244352"><ele>399.0</ele><time>2026-04-27T16:16:27.934Z</time></trkpt><trkpt lat="39.44834648438729" lon="8.535756709991624"><ele>399.0</ele><time>2026-04-27T16:16:28.934Z</time></trkpt><trkpt lat="39.44825193715474" lon="8.535660296594909"><ele>399.0</ele><time>2026-04-27T16:16:29.934Z</time></trkpt><trkpt lat="39.44816142664401" lon="8.535583116797609"><ele>399.0</ele><time>2026-04-27T16:16:30.934Z</time></trkpt><trkpt lat="39.44805366490715" lon="8.535529520659068"><ele>399.0</ele><time>2026-04-27T16:16:32.934Z</time></trkpt><trkpt lat="39.44798584557087" lon="8.535526025042339"><ele>399.0</ele><time>2026-04-27T16:16:33.934Z</time></trkpt><trkpt lat="39.44790286702571" lon="8.535528659735684"><ele>399.0</ele><time>2026-04-27T16:16:34.934Z</time></trkpt><trkpt lat="39.44782905386044" lon="8.535533020083204"><ele>399.0</ele><time>2026-04-27T16:16:35.934Z</time></trkpt><trkpt lat="39.44775331842954" lon="8.535554588660654"><ele>399.0</ele><time>2026-04-27T16:16:36.934Z</time></trkpt><trkpt lat="39.44765272291625" lon="8.535572593965883"><ele>398.2</ele><time>2026-04-27T16:16:38.934Z</time></trkpt><trkpt lat="39.447587769480165" lon="8.535586678145155"><ele>397.4</ele><time>2026-04-27T16:16:39.934Z</time></trkpt><trkpt lat="39.447453466213716" lon="8.535608731610616"><ele>396.6</ele><time>2026-04-27T16:16:41.934Z</time></trkpt><trkpt lat="39.44738861523627" lon="8.535648265075817"><ele>395.8</ele><time>2026-04-27T16:16:42.934Z</time></trkpt><trkpt lat="39.44730952856296" lon="8.535725429061952"><ele>395.0</ele><time>2026-04-27T16:16:43.934Z</time></trkpt><trkpt lat="39.44723597623984" lon="8.535796443953593"><ele>394.99999999999994</ele><time>2026-04-27T16:16:44.934Z</time></trkpt><trkpt lat="39.447171474707105" lon="8.535855218075472"><ele>395.0</ele><time>2026-04-27T16:16:45.934Z</time></trkpt><trkpt lat="39.447107614297" lon="8.535880575799512"><ele>395.0</ele><time>2026-04-27T16:16:46.934Z</time></trkpt><trkpt lat="39.44703992584153" lon="8.535875086846206"><ele>395.0</ele><time>2026-04-27T16:16:47.934Z</time></trkpt><trkpt lat="39.44694995656618" lon="8.535878517132716"><ele>394.99999999999994</ele><time>2026-04-27T16:16:48.934Z</time></trkpt><trkpt lat="39.44686031038717" lon="8.535876678118434"><ele>395.0</ele><time>2026-04-27T16:16:49.934Z</time></trkpt><trkpt lat="39.446771905255524" lon="8.53586658525089"><ele>393.16666666666663</ele><time>2026-04-27T16:16:50.934Z</time></trkpt><trkpt lat="39.44667871031976" lon="8.535842418166185"><ele>391.3333333333333</ele><time>2026-04-27T16:16:51.933Z</time></trkpt><trkpt lat="39.44658965309232" lon="8.535820348323748"><ele>389.5</ele><time>2026-04-27T16:16:52.933Z</time></trkpt><trkpt lat="39.446524044514796" lon="8.535803011822773"><ele>387.66666666666663</ele><time>2026-04-27T16:16:53.933Z</time></trkpt><trkpt lat="39.446450513348886" lon="8.535805304016074"><ele>385.8333333333333</ele><time>2026-04-27T16:16:54.933Z</time></trkpt><trkpt lat="39.44638670138192" lon="8.535801295510467"><ele>384.0</ele><time>2026-04-27T16:16:55.933Z</time></trkpt><trkpt lat="39.44631006850909" lon="8.53583332754419"><ele>381.5</ele><time>2026-04-27T16:16:57.932Z</time></trkpt><trkpt lat="39.44621887037228" lon="8.535889088870519"><ele>379.0</ele><time>2026-04-27T16:16:59.933Z</time></trkpt><trkpt lat="39.4461606193815" lon="8.535923644371504"><ele>376.5</ele><time>2026-04-27T16:17:00.933Z</time></trkpt><trkpt lat="39.44608179193303" lon="8.535963713914468"><ele>374.0</ele><time>2026-04-27T16:17:01.932Z</time></trkpt><trkpt lat="39.44599779814009" lon="8.536000042899602"><ele>371.5</ele><time>2026-04-27T16:17:02.932Z</time></trkpt><trkpt lat="39.44592587518331" lon="8.536020734854768"><ele>369.0</ele><time>2026-04-27T16:17:03.932Z</time></trkpt><trkpt lat="39.44584328280324" lon="8.536055119819272"><ele>369.0</ele><time>2026-04-27T16:17:04.933Z</time></trkpt><trkpt lat="39.44575453790894" lon="8.536068751854069"><ele>369.0</ele><time>2026-04-27T16:17:05.933Z</time></trkpt><trkpt lat="39.4456862470722" lon="8.536050026980716"><ele>369.0</ele><time>2026-04-27T16:17:06.933Z</time></trkpt><trkpt lat="39.445569063819875" lon="8.535991636114474"><ele>369.0</ele><time>2026-04-27T16:17:08.933Z</time></trkpt><trkpt lat="39.44552541680364" lon="8.535918816382278"><ele>369.0</ele><time>2026-04-27T16:17:09.933Z</time></trkpt><trkpt lat="39.44546435115513" lon="8.535844481445174"><ele>369.0</ele><time>2026-04-27T16:17:10.933Z</time></trkpt><trkpt lat="39.4454091416667" lon="8.535785165199103"><ele>367.6666666666667</ele><time>2026-04-27T16:17:11.933Z</time></trkpt><trkpt lat="39.44534686046614" lon="8.535738906159096"><ele>366.3333333333333</ele><time>2026-04-27T16:17:12.933Z</time></trkpt><trkpt lat="39.44528067720201" lon="8.535716809618634"><ele>365.0</ele><time>2026-04-27T16:17:13.933Z</time></trkpt><trkpt lat="39.44520987815267" lon="8.535676916301538"><ele>363.66666666666663</ele><time>2026-04-27T16:17:14.933Z</time></trkpt><trkpt lat="39.445160143930806" lon="8.535617886221832"><ele>362.3333333333333</ele><time>2026-04-27T16:17:15.933Z</time></trkpt><trkpt lat="39.44510714669209" lon="8.535532862268708"><ele>361.0</ele><time>2026-04-27T16:17:16.933Z</time></trkpt><trkpt lat="39.445063987074874" lon="8.53543547616945"><ele>359.6</ele><time>2026-04-27T16:17:17.933Z</time></trkpt><trkpt lat="39.44503373645328" lon="8.535334261555912"><ele>358.20000000000005</ele><time>2026-04-27T16:17:18.933Z</time></trkpt><trkpt lat="39.445002333320446" lon="8.535211912953056"><ele>356.79999999999995</ele><time>2026-04-27T16:17:19.933Z</time></trkpt><trkpt lat="39.44496892054434" lon="8.535109121602781"><ele>355.4</ele><time>2026-04-27T16:17:20.933Z</time></trkpt><trkpt lat="39.44492461723383" lon="8.534994041464152"><ele>354.0</ele><time>2026-04-27T16:17:21.933Z</time></trkpt><trkpt lat="39.44485521811939" lon="8.534872398873858"><ele>354.0</ele><time>2026-04-27T16:17:22.933Z</time></trkpt><trkpt lat="39.44478618515331" lon="8.534755392823685"><ele>354.0</ele><time>2026-04-27T16:17:23.933Z</time></trkpt><trkpt lat="39.44472637890526" lon="8.534640340626558"><ele>354.0</ele><time>2026-04-27T16:17:24.933Z</time></trkpt><trkpt lat="39.4446666222833" lon="8.534532889403009"><ele>354.0</ele><time>2026-04-27T16:17:25.933Z</time></trkpt><trkpt lat="39.44459612304348" lon="8.534424728385762"><ele>354.0</ele><time>2026-04-27T16:17:26.933Z</time></trkpt><trkpt lat="39.444528966482316" lon="8.534344803071589"><ele>354.2</ele><time>2026-04-27T16:17:27.933Z</time></trkpt><trkpt lat="39.44444772527135" lon="8.534261926015303"><ele>354.4</ele><time>2026-04-27T16:17:28.933Z</time></trkpt><trkpt lat="39.44437497632458" lon="8.53416746277693"><ele>354.6</ele><time>2026-04-27T16:17:29.933Z</time></trkpt><trkpt lat="39.44430357650096" lon="8.534055703037692"><ele>354.8</ele><time>2026-04-27T16:17:30.933Z</time></trkpt><trkpt lat="39.4442198802258" lon="8.533943992226511"><ele>355.0</ele><time>2026-04-27T16:17:31.933Z</time></trkpt><trkpt lat="39.44413381176049" lon="8.533831386474128"><ele>355.0</ele><time>2026-04-27T16:17:32.933Z</time></trkpt><trkpt lat="39.44405224171813" lon="8.533730534770282"><ele>355.0</ele><time>2026-04-27T16:17:33.933Z</time></trkpt><trkpt lat="39.443969874858645" lon="8.533657782234197"><ele>355.0</ele><time>2026-04-27T16:17:34.933Z</time></trkpt><trkpt lat="39.44387395893614" lon="8.533592724989008"><ele>355.0</ele><time>2026-04-27T16:17:35.933Z</time></trkpt><trkpt lat="39.443793815693304" lon="8.533531707756307"><ele>355.0</ele><time>2026-04-27T16:17:36.933Z</time></trkpt><trkpt lat="39.4437242553985" lon="8.533449546083524"><ele>352.16666666666663</ele><time>2026-04-27T16:17:37.933Z</time></trkpt><trkpt lat="39.44366019837602" lon="8.533373733375077"><ele>349.3333333333333</ele><time>2026-04-27T16:17:38.933Z</time></trkpt><trkpt lat="39.4435927686406" lon="8.533302449110368"><ele>346.5</ele><time>2026-04-27T16:17:39.933Z</time></trkpt><trkpt lat="39.443537219716895" lon="8.533237646146723"><ele>343.6666666666667</ele><time>2026-04-27T16:17:40.933Z</time></trkpt><trkpt lat="39.44347397406943" lon="8.533165189930104"><ele>340.83333333333337</ele><time>2026-04-27T16:17:42.933Z</time></trkpt><trkpt lat="39.44340523944268" lon="8.533110259268149"><ele>338.0</ele><time>2026-04-27T16:17:57.933Z</time></trkpt><trkpt lat="39.44334145572443" lon="8.53302928385003"><ele>338.0</ele><time>2026-04-27T16:18:57.932Z</time></trkpt><trkpt lat="39.44329252830209" lon="8.53294554365294"><ele>338.0</ele><time>2026-04-27T16:18:59.932Z</time></trkpt><trkpt lat="39.443264618263434" lon="8.532821635192485"><ele>338.0</ele><time>2026-04-27T16:19:01.932Z</time></trkpt><trkpt lat="39.44322242194873" lon="8.532695879031818"><ele>338.0</ele><time>2026-04-27T16:19:03.931Z</time></trkpt><trkpt lat="39.4431629811857" lon="8.53259078985922"><ele>338.0</ele><time>2026-04-27T16:19:05.932Z</time></trkpt><trkpt lat="39.44308742270747" lon="8.532476785220336"><ele>336.2</ele><time>2026-04-27T16:19:07.932Z</time></trkpt><trkpt lat="39.44301607058721" lon="8.532371486477322"><ele>334.4</ele><time>2026-04-27T16:19:09.932Z</time></trkpt><trkpt lat="39.44292563321519" lon="8.53225717111631"><ele>332.59999999999997</ele><time>2026-04-27T16:19:11.932Z</time></trkpt><trkpt lat="39.44282671400244" lon="8.532152734189731"><ele>330.79999999999995</ele><time>2026-04-27T16:19:13.932Z</time></trkpt><trkpt lat="39.442773703221626" lon="8.532099316248388"><ele>329.0</ele><time>2026-04-27T16:19:14.932Z</time></trkpt><trkpt lat="39.442719667963814" lon="8.532044377079682"><ele>326.14285714285717</ele><time>2026-04-27T16:19:15.932Z</time></trkpt><trkpt lat="39.44266682706652" lon="8.531979538097907"><ele>323.2857142857143</ele><time>2026-04-27T16:19:16.932Z</time></trkpt><trkpt lat="39.44259381240579" lon="8.53193475116977"><ele>320.42857142857144</ele><time>2026-04-27T16:19:17.932Z</time></trkpt><trkpt lat="39.442517832215394" lon="8.531929811629302"><ele>317.57142857142856</ele><time>2026-04-27T16:19:18.932Z</time></trkpt><trkpt lat="39.442453780309926" lon="8.531911401489586"><ele>314.7142857142857</ele><time>2026-04-27T16:19:19.932Z</time></trkpt><trkpt lat="39.442384331011375" lon="8.531910666394364"><ele>311.8571428571429</ele><time>2026-04-27T16:19:20.932Z</time></trkpt><trkpt lat="39.4423064325297" lon="8.531891655477628"><ele>309.0</ele><time>2026-04-27T16:19:21.932Z</time></trkpt><trkpt lat="39.44222271581851" lon="8.531932913563557"><ele>308.0</ele><time>2026-04-27T16:19:22.932Z</time></trkpt><trkpt lat="39.44212695951181" lon="8.531945931804968"><ele>307.0</ele><time>2026-04-27T16:19:23.932Z</time></trkpt><trkpt lat="39.442041189830256" lon="8.531953543995568"><ele>306.0</ele><time>2026-04-27T16:19:24.932Z</time></trkpt><trkpt lat="39.441957314772786" lon="8.531965582240593"><ele>305.0</ele><time>2026-04-27T16:19:25.932Z</time></trkpt><trkpt lat="39.44186479359654" lon="8.531977702713029"><ele>304.0</ele><time>2026-04-27T16:19:26.932Z</time></trkpt><trkpt lat="39.441764512142434" lon="8.531982910118716"><ele>304.0</ele><time>2026-04-27T16:19:27.932Z</time></trkpt><trkpt lat="39.4416649009703" lon="8.531970687940335"><ele>304.0</ele><time>2026-04-27T16:19:28.932Z</time></trkpt><trkpt lat="39.44156849632988" lon="8.531959948745017"><ele>304.0</ele><time>2026-04-27T16:19:29.932Z</time></trkpt><trkpt lat="39.44147255251462" lon="8.531961533795586"><ele>304.0</ele><time>2026-04-27T16:19:30.932Z</time></trkpt><trkpt lat="39.44138045468011" lon="8.53197696746255"><ele>304.0</ele><time>2026-04-27T16:19:31.932Z</time></trkpt><trkpt lat="39.44129365380085" lon="8.53198954496866"><ele>301.8333333333333</ele><time>2026-04-27T16:19:32.932Z</time></trkpt><trkpt lat="39.44122101072764" lon="8.531996328803588"><ele>299.66666666666663</ele><time>2026-04-27T16:19:33.932Z</time></trkpt><trkpt lat="39.441126773070124" lon="8.53193260121435"><ele>297.5</ele><time>2026-04-27T16:19:35.932Z</time></trkpt><trkpt lat="39.44109895502756" lon="8.531790722923425"><ele>295.3333333333333</ele><time>2026-04-27T16:19:37.932Z</time></trkpt><trkpt lat="39.44111567682799" lon="8.531709963115453"><ele>293.1666666666667</ele><time>2026-04-27T16:19:38.932Z</time></trkpt><trkpt lat="39.44114697271118" lon="8.5316217132631"><ele>291.0</ele><time>2026-04-27T16:19:39.932Z</time></trkpt><trkpt lat="39.44118903684203" lon="8.531525436272808"><ele>291.0</ele><time>2026-04-27T16:19:40.932Z</time></trkpt><trkpt lat="39.44122880113488" lon="8.531433915998354"><ele>291.0</ele><time>2026-04-27T16:19:41.932Z</time></trkpt><trkpt lat="39.441271088566715" lon="8.53133724609566"><ele>291.0</ele><time>2026-04-27T16:19:42.932Z</time></trkpt><trkpt lat="39.441324048166436" lon="8.53123309073338"><ele>291.0</ele><time>2026-04-27T16:19:43.932Z</time></trkpt><trkpt lat="39.44135835057436" lon="8.531130728726257"><ele>291.0</ele><time>2026-04-27T16:19:44.932Z</time></trkpt><trkpt lat="39.44137087838401" lon="8.531032709303679"><ele>291.0</ele><time>2026-04-27T16:19:45.932Z</time></trkpt><trkpt lat="39.44137376835678" lon="8.530927300002432"><ele>290.6666666666667</ele><time>2026-04-27T16:19:46.932Z</time></trkpt><trkpt lat="39.44135818343633" lon="8.5308167116519"><ele>290.3333333333333</ele><time>2026-04-27T16:19:47.932Z</time></trkpt><trkpt lat="39.44133284182657" lon="8.530722896326026"><ele>290.0</ele><time>2026-04-27T16:19:48.932Z</time></trkpt><trkpt lat="39.441291011114565" lon="8.530654437856267"><ele>289.66666666666663</ele><time>2026-04-27T16:19:49.932Z</time></trkpt><trkpt lat="39.44123122814391" lon="8.530587601311165"><ele>289.3333333333333</ele><time>2026-04-27T16:19:50.932Z</time></trkpt><trkpt lat="39.44117039782224" lon="8.530511761641167"><ele>289.0</ele><time>2026-04-27T16:19:51.932Z</time></trkpt><trkpt lat="39.441132325698135" lon="8.530424898269896"><ele>287.8</ele><time>2026-04-27T16:19:52.932Z</time></trkpt><trkpt lat="39.44111359855396" lon="8.53032989803438"><ele>286.59999999999997</ele><time>2026-04-27T16:19:53.932Z</time></trkpt><trkpt lat="39.441105702354115" lon="8.530211924143677"><ele>285.4</ele><time>2026-04-27T16:19:54.932Z</time></trkpt><trkpt lat="39.44110236860019" lon="8.530087131932671"><ele>284.2</ele><time>2026-04-27T16:19:55.932Z</time></trkpt><trkpt lat="39.44110855307901" lon="8.529962382877198"><ele>283.0</ele><time>2026-04-27T16:19:56.932Z</time></trkpt><trkpt lat="39.44112145122756" lon="8.529821457796288"><ele>283.0</ele><time>2026-04-27T16:19:57.932Z</time></trkpt><trkpt lat="39.44113157139035" lon="8.529660365514559"><ele>283.0</ele><time>2026-04-27T16:19:58.932Z</time></trkpt><trkpt lat="39.441128791561994" lon="8.529489452720101"><ele>283.0</ele><time>2026-04-27T16:19:59.932Z</time></trkpt><trkpt lat="39.441130788392904" lon="8.529325884360466"><ele>283.0</ele><time>2026-04-27T16:20:00.932Z</time></trkpt><trkpt lat="39.44114134086827" lon="8.529185001596005"><ele>284.2</ele><time>2026-04-27T16:20:01.932Z</time></trkpt><trkpt lat="39.44115778845001" lon="8.529057486332118"><ele>285.4</ele><time>2026-04-27T16:20:02.932Z</time></trkpt><trkpt lat="39.44116450348231" lon="8.528940366655206"><ele>286.59999999999997</ele><time>2026-04-27T16:20:03.932Z</time></trkpt><trkpt lat="39.44115662998707" lon="8.528830151995754"><ele>287.8</ele><time>2026-04-27T16:20:04.932Z</time></trkpt><trkpt lat="39.44114391594512" lon="8.528721305935361"><ele>289.0</ele><time>2026-04-27T16:20:05.932Z</time></trkpt><trkpt lat="39.44110910138604" lon="8.528597971116868"><ele>289.0</ele><time>2026-04-27T16:20:06.932Z</time></trkpt><trkpt lat="39.44107802587304" lon="8.528482730729735"><ele>289.0</ele><time>2026-04-27T16:20:07.932Z</time></trkpt><trkpt lat="39.441049692695344" lon="8.528385745900193"><ele>289.0</ele><time>2026-04-27T16:20:08.932Z</time></trkpt><trkpt lat="39.44101300425513" lon="8.528277068569421"><ele>289.0</ele><time>2026-04-27T16:20:09.932Z</time></trkpt><trkpt lat="39.4409770069806" lon="8.528147539038251"><ele>289.0</ele><time>2026-04-27T16:20:10.932Z</time></trkpt><trkpt lat="39.440947318455564" lon="8.528025930993428"><ele>289.0</ele><time>2026-04-27T16:20:11.932Z</time></trkpt><trkpt lat="39.44092214702298" lon="8.527905079429095"><ele>289.0</ele><time>2026-04-27T16:20:12.932Z</time></trkpt><trkpt lat="39.44090969921987" lon="8.527786876940276"><ele>289.0</ele><time>2026-04-27T16:20:13.932Z</time></trkpt><trkpt lat="39.44089835411405" lon="8.527663036516307"><ele>289.0</ele><time>2026-04-27T16:20:14.932Z</time></trkpt><trkpt lat="39.440894484831254" lon="8.527550368158554"><ele>289.0</ele><time>2026-04-27T16:20:15.932Z</time></trkpt><trkpt lat="39.440886867235044" lon="8.527440031686293"><ele>286.0</ele><time>2026-04-27T16:20:16.932Z</time></trkpt><trkpt lat="39.440880841548484" lon="8.527357314199522"><ele>283.0</ele><time>2026-04-27T16:20:17.932Z</time></trkpt><trkpt lat="39.44087146346009" lon="8.527275341321422"><ele>280.0</ele><time>2026-04-27T16:20:18.932Z</time></trkpt><trkpt lat="39.44085124101188" lon="8.527196354752853"><ele>277.0</ele><time>2026-04-27T16:20:19.932Z</time></trkpt><trkpt lat="39.44075827356062" lon="8.527093862528895"><ele>274.0</ele><time>2026-04-27T16:20:21.932Z</time></trkpt><trkpt lat="39.44069927294487" lon="8.52704939316145"><ele>271.0</ele><time>2026-04-27T16:20:22.932Z</time></trkpt><trkpt lat="39.440597275957096" lon="8.52702204687112"><ele>269.3333333333333</ele><time>2026-04-27T16:20:24.932Z</time></trkpt><trkpt lat="39.440502565735535" lon="8.52704697188109"><ele>267.66666666666663</ele><time>2026-04-27T16:20:26.932Z</time></trkpt><trkpt lat="39.44043974040478" lon="8.527106871764719"><ele>266.0</ele><time>2026-04-27T16:20:27.932Z</time></trkpt><trkpt lat="39.44036897456374" lon="8.527159742201835"><ele>264.3333333333333</ele><time>2026-04-27T16:20:28.932Z</time></trkpt><trkpt lat="39.440285871457554" lon="8.52720127953351"><ele>262.6666666666667</ele><time>2026-04-27T16:20:29.932Z</time></trkpt><trkpt lat="39.44020931677646" lon="8.527215331337448"><ele>261.0</ele><time>2026-04-27T16:20:30.932Z</time></trkpt><trkpt lat="39.44013259032281" lon="8.527210691731115"><ele>261.0</ele><time>2026-04-27T16:20:31.932Z</time></trkpt><trkpt lat="39.44005891668165" lon="8.527181860017805"><ele>261.0</ele><time>2026-04-27T16:20:32.932Z</time></trkpt><trkpt lat="39.439979533685886" lon="8.527158248751675"><ele>261.0</ele><time>2026-04-27T16:20:33.932Z</time></trkpt><trkpt lat="39.43989776121075" lon="8.527141317016278"><ele>261.0</ele><time>2026-04-27T16:20:34.932Z</time></trkpt><trkpt lat="39.439823395530325" lon="8.527134527154644"><ele>261.0</ele><time>2026-04-27T16:20:35.932Z</time></trkpt><trkpt lat="39.43973286020703" lon="8.527126260974766"><ele>261.0</ele><time>2026-04-27T16:20:36.932Z</time></trkpt><trkpt lat="39.439637860748604" lon="8.527127034340632"><ele>255.33333333333334</ele><time>2026-04-27T16:20:37.932Z</time></trkpt><trkpt lat="39.43955698047871" lon="8.527054716109273"><ele>249.66666666666669</ele><time>2026-04-27T16:20:38.932Z</time></trkpt><trkpt lat="39.43946898436254" lon="8.527028420580045"><ele>244.0</ele><time>2026-04-27T16:20:39.932Z</time></trkpt><trkpt lat="39.43937339260123" lon="8.527017410393242"><ele>238.33333333333334</ele><time>2026-04-27T16:20:40.932Z</time></trkpt><trkpt lat="39.439298969074656" lon="8.527009950278764"><ele>232.66666666666669</ele><time>2026-04-27T16:20:41.932Z</time></trkpt><trkpt lat="39.43923021506684" lon="8.52699139618347"><ele>227.0</ele><time>2026-04-27T16:20:42.932Z</time></trkpt><trkpt lat="39.439132326801314" lon="8.526914856134871"><ele>227.0</ele><time>2026-04-27T16:20:44.932Z</time></trkpt><trkpt lat="39.43908469520636" lon="8.526846047367503"><ele>227.0</ele><time>2026-04-27T16:20:45.932Z</time></trkpt><trkpt lat="39.43905536890183" lon="8.526740675190752"><ele>227.0</ele><time>2026-04-27T16:20:46.932Z</time></trkpt><trkpt lat="39.4390092724081" lon="8.526616263941493"><ele>227.0</ele><time>2026-04-27T16:20:47.932Z</time></trkpt><trkpt lat="39.43896370497579" lon="8.526504729657862"><ele>227.0</ele><time>2026-04-27T16:20:48.932Z</time></trkpt><trkpt lat="39.4389408810796" lon="8.526384846261367"><ele>227.0</ele><time>2026-04-27T16:20:49.932Z</time></trkpt><trkpt lat="39.43893538798803" lon="8.526261981848817"><ele>227.0</ele><time>2026-04-27T16:20:50.932Z</time></trkpt><trkpt lat="39.438941257992745" lon="8.526127381661311"><ele>227.0</ele><time>2026-04-27T16:20:51.932Z</time></trkpt><trkpt lat="39.43895889644315" lon="8.52600574126468"><ele>227.0</ele><time>2026-04-27T16:20:52.932Z</time></trkpt><trkpt lat="39.43897982180989" lon="8.525889842794525"><ele>227.0</ele><time>2026-04-27T16:20:53.932Z</time></trkpt><trkpt lat="39.43899397901823" lon="8.525776120137248"><ele>225.50000000000003</ele><time>2026-04-27T16:20:54.932Z</time></trkpt><trkpt lat="39.439004191321075" lon="8.525659049937017"><ele>224.0</ele><time>2026-04-27T16:20:55.932Z</time></trkpt><trkpt lat="39.4389995488539" lon="8.525555536524228"><ele>222.5</ele><time>2026-04-27T16:20:56.932Z</time></trkpt><trkpt lat="39.438992988779944" lon="8.525463537204724"><ele>221.0</ele><time>2026-04-27T16:20:57.932Z</time></trkpt><trkpt lat="39.43899401509062" lon="8.525352872284303"><ele>219.50000000000003</ele><time>2026-04-27T16:20:58.932Z</time></trkpt><trkpt lat="39.43898056710555" lon="8.525236103986114"><ele>218.0</ele><time>2026-04-27T16:20:59.932Z</time></trkpt><trkpt lat="39.43897910332438" lon="8.525112084353772"><ele>216.83333333333334</ele><time>2026-04-27T16:21:00.932Z</time></trkpt><trkpt lat="39.438993019667784" lon="8.525001780812872"><ele>215.66666666666669</ele><time>2026-04-27T16:21:01.932Z</time></trkpt><trkpt lat="39.439031366018376" lon="8.52493148291821"><ele>214.5</ele><time>2026-04-27T16:21:02.932Z</time></trkpt><trkpt lat="39.43910287842225" lon="8.524931894911123"><ele>213.33333333333331</ele><time>2026-04-27T16:21:04.93Z</time></trkpt><trkpt lat="39.439124684239786" lon="8.525029598925547"><ele>212.16666666666666</ele><time>2026-04-27T16:21:06.931Z</time></trkpt><trkpt lat="39.43912118698547" lon="8.525167790138687"><ele>211.0</ele><time>2026-04-27T16:21:08.931Z</time></trkpt><trkpt lat="39.439147071854286" lon="8.525283427129086"><ele>212.4</ele><time>2026-04-27T16:21:09.931Z</time></trkpt><trkpt lat="39.439211639640966" lon="8.525397572722174"><ele>213.8</ele><time>2026-04-27T16:21:10.931Z</time></trkpt><trkpt lat="39.439267650766936" lon="8.52550348199176"><ele>215.20000000000002</ele><time>2026-04-27T16:21:11.931Z</time></trkpt><trkpt lat="39.43932627339539" lon="8.52561337151667"><ele>216.60000000000002</ele><time>2026-04-27T16:21:12.931Z</time></trkpt><trkpt lat="39.43938569223007" lon="8.52572450330862"><ele>218.0</ele><time>2026-04-27T16:21:13.931Z</time></trkpt><trkpt lat="39.43945417044302" lon="8.52580581477582"><ele>218.00000000000003</ele><time>2026-04-27T16:21:14.931Z</time></trkpt><trkpt lat="39.4394945849846" lon="8.525876108981272"><ele>218.0</ele><time>2026-04-27T16:21:15.931Z</time></trkpt><trkpt lat="39.43956902924029" lon="8.525882992333148"><ele>218.0</ele><time>2026-04-27T16:21:17.931Z</time></trkpt><trkpt lat="39.4396279834376" lon="8.525840078894403"><ele>218.0</ele><time>2026-04-27T16:21:18.931Z</time></trkpt><trkpt lat="39.43968929705372" lon="8.525761253781466"><ele>218.00000000000003</ele><time>2026-04-27T16:21:19.931Z</time></trkpt><trkpt lat="39.43972184094338" lon="8.525683994084403"><ele>218.0</ele><time>2026-04-27T16:21:20.931Z</time></trkpt><trkpt lat="39.439725479530594" lon="8.525537893674276"><ele>218.33333333333334</ele><time>2026-04-27T16:21:21.931Z</time></trkpt><trkpt lat="39.43973424113981" lon="8.525407377388252"><ele>218.66666666666669</ele><time>2026-04-27T16:21:22.931Z</time></trkpt><trkpt lat="39.43974373073707" lon="8.525287001286596"><ele>219.0</ele><time>2026-04-27T16:21:23.931Z</time></trkpt><trkpt lat="39.43976746814104" lon="8.525174340773235"><ele>219.33333333333331</ele><time>2026-04-27T16:21:24.931Z</time></trkpt><trkpt lat="39.43979491863564" lon="8.525077555781506"><ele>219.66666666666666</ele><time>2026-04-27T16:21:25.931Z</time></trkpt><trkpt lat="39.43982728048504" lon="8.525000757717043"><ele>220.0</ele><time>2026-04-27T16:21:26.931Z</time></trkpt><trkpt lat="39.43988761946269" lon="8.524941929132986"><ele>216.66666666666666</ele><time>2026-04-27T16:21:27.931Z</time></trkpt><trkpt lat="39.439933233222824" lon="8.52485501885856"><ele>213.33333333333331</ele><time>2026-04-27T16:21:28.931Z</time></trkpt><trkpt lat="39.43999047327367" lon="8.52478846888711"><ele>210.0</ele><time>2026-04-27T16:21:29.931Z</time></trkpt><trkpt lat="39.44004055181789" lon="8.524703755110291"><ele>206.66666666666669</ele><time>2026-04-27T16:21:30.931Z</time></trkpt><trkpt lat="39.440076646036545" lon="8.52460015181659"><ele>203.33333333333334</ele><time>2026-04-27T16:21:31.931Z</time></trkpt><trkpt lat="39.44008993499386" lon="8.524495555734553"><ele>200.0</ele><time>2026-04-27T16:21:32.931Z</time></trkpt><trkpt lat="39.44009410270189" lon="8.524402953853395"><ele>197.66666666666669</ele><time>2026-04-27T16:21:33.931Z</time></trkpt><trkpt lat="39.44008207954381" lon="8.524302672404247"><ele>195.33333333333334</ele><time>2026-04-27T16:21:34.931Z</time></trkpt><trkpt lat="39.44005333418977" lon="8.524205524497008"><ele>193.0</ele><time>2026-04-27T16:21:35.931Z</time></trkpt><trkpt lat="39.44002246964716" lon="8.524111466874052"><ele>190.66666666666669</ele><time>2026-04-27T16:21:36.931Z</time></trkpt><trkpt lat="39.44000364202727" lon="8.524004619858651"><ele>188.33333333333334</ele><time>2026-04-27T16:21:37.931Z</time></trkpt><trkpt lat="39.43999997932418" lon="8.523901718588018"><ele>186.0</ele><time>2026-04-27T16:21:38.931Z</time></trkpt><trkpt lat="39.44000539376696" lon="8.52378920082057"><ele>183.66666666666666</ele><time>2026-04-27T16:21:39.931Z</time></trkpt><trkpt lat="39.440016323749845" lon="8.52369159706923"><ele>181.33333333333334</ele><time>2026-04-27T16:21:40.931Z</time></trkpt><trkpt lat="39.440030220795116" lon="8.523572886954172"><ele>179.0</ele><time>2026-04-27T16:21:41.931Z</time></trkpt><trkpt lat="39.44004469093527" lon="8.523467692397073"><ele>176.66666666666669</ele><time>2026-04-27T16:21:42.931Z</time></trkpt><trkpt lat="39.44006017421837" lon="8.523359096264153"><ele>174.33333333333334</ele><time>2026-04-27T16:21:43.931Z</time></trkpt><trkpt lat="39.44007290876323" lon="8.523252018253602"><ele>172.0</ele><time>2026-04-27T16:21:44.931Z</time></trkpt><trkpt lat="39.440095507080876" lon="8.523166293855063"><ele>172.0</ele><time>2026-04-27T16:21:45.931Z</time></trkpt><trkpt lat="39.44013107835177" lon="8.523082451448118"><ele>172.0</ele><time>2026-04-27T16:21:46.931Z</time></trkpt><trkpt lat="39.440159414943416" lon="8.52298603698089"><ele>172.0</ele><time>2026-04-27T16:21:47.931Z</time></trkpt><trkpt lat="39.440173145214374" lon="8.52288868873592"><ele>172.0</ele><time>2026-04-27T16:21:48.931Z</time></trkpt><trkpt lat="39.44018819606825" lon="8.522793099917177"><ele>172.0</ele><time>2026-04-27T16:21:49.931Z</time></trkpt><trkpt lat="39.440212134376225" lon="8.522689029398126"><ele>172.0</ele><time>2026-04-27T16:21:50.931Z</time></trkpt><trkpt lat="39.44023817138443" lon="8.522586122228503"><ele>168.66666666666669</ele><time>2026-04-27T16:21:51.931Z</time></trkpt><trkpt lat="39.44026549968778" lon="8.522491598613453"><ele>165.33333333333334</ele><time>2026-04-27T16:21:52.931Z</time></trkpt><trkpt lat="39.440298030375786" lon="8.522387220247566"><ele>162.0</ele><time>2026-04-27T16:21:53.931Z</time></trkpt><trkpt lat="39.440333090954994" lon="8.52229733854694"><ele>158.66666666666666</ele><time>2026-04-27T16:21:54.931Z</time></trkpt><trkpt lat="39.440351446641934" lon="8.522200485531028"><ele>155.33333333333331</ele><time>2026-04-27T16:21:55.931Z</time></trkpt><trkpt lat="39.440362058972234" lon="8.52211242174562"><ele>152.0</ele><time>2026-04-27T16:21:56.931Z</time></trkpt><trkpt lat="39.44036572327839" lon="8.522017227978278"><ele>150.4</ele><time>2026-04-27T16:21:58.931Z</time></trkpt><trkpt lat="39.44032798353086" lon="8.521925463298704"><ele>148.79999999999998</ele><time>2026-04-27T16:22:05.931Z</time></trkpt><trkpt lat="39.440258635938534" lon="8.521907308607114"><ele>147.2</ele><time>2026-04-27T16:22:06.931Z</time></trkpt><trkpt lat="39.44014589869545" lon="8.521913954371044"><ele>145.6</ele><time>2026-04-27T16:22:08.931Z</time></trkpt><trkpt lat="39.440022964792696" lon="8.521881955954976"><ele>144.0</ele><time>2026-04-27T16:22:10.931Z</time></trkpt><trkpt lat="39.439955222952314" lon="8.521845250308928"><ele>144.0</ele><time>2026-04-27T16:22:11.931Z</time></trkpt><trkpt lat="39.43988899582484" lon="8.52181765824123"><ele>144.0</ele><time>2026-04-27T16:22:12.931Z</time></trkpt><trkpt lat="39.439814452297895" lon="8.521685867909788"><ele>144.0</ele><time>2026-04-27T16:22:14.931Z</time></trkpt><trkpt lat="39.43980269719361" lon="8.52160292371655"><ele>144.0</ele><time>2026-04-27T16:22:15.931Z</time></trkpt><trkpt lat="39.43977957036182" lon="8.521498025774703"><ele>144.0</ele><time>2026-04-27T16:22:16.931Z</time></trkpt><trkpt lat="39.439753562591115" lon="8.521380191140969"><ele>144.0</ele><time>2026-04-27T16:22:17.931Z</time></trkpt><trkpt lat="39.43974511416034" lon="8.521248567761926"><ele>143.5</ele><time>2026-04-27T16:22:18.931Z</time></trkpt><trkpt lat="39.43974171164137" lon="8.52112514570073"><ele>143.0</ele><time>2026-04-27T16:22:19.931Z</time></trkpt><trkpt lat="39.43973932221921" lon="8.521002495740166"><ele>142.5</ele><time>2026-04-27T16:22:20.931Z</time></trkpt><trkpt lat="39.43974232128034" lon="8.520894147709411"><ele>142.0</ele><time>2026-04-27T16:22:21.931Z</time></trkpt><trkpt lat="39.43973783787894" lon="8.52079852628647"><ele>141.5</ele><time>2026-04-27T16:22:22.931Z</time></trkpt><trkpt lat="39.439728533596416" lon="8.520717079367634"><ele>141.0</ele><time>2026-04-27T16:22:23.931Z</time></trkpt><trkpt lat="39.439708444508454" lon="8.520619796826228"><ele>141.0</ele><time>2026-04-27T16:22:24.931Z</time></trkpt><trkpt lat="39.43967412803427" lon="8.520527740149932"><ele>141.0</ele><time>2026-04-27T16:22:25.931Z</time></trkpt><trkpt lat="39.439627750580286" lon="8.520456016100663"><ele>141.0</ele><time>2026-04-27T16:22:26.931Z</time></trkpt><trkpt lat="39.439570755677536" lon="8.520408618390562"><ele>141.0</ele><time>2026-04-27T16:22:27.931Z</time></trkpt><trkpt lat="39.43950195291603" lon="8.520379503437828"><ele>141.0</ele><time>2026-04-27T16:22:28.931Z</time></trkpt><trkpt lat="39.43943035796867" lon="8.520354699130102"><ele>141.0</ele><time>2026-04-27T16:22:29.931Z</time></trkpt><trkpt lat="39.439358333256955" lon="8.52034796224083"><ele>141.0</ele><time>2026-04-27T16:22:30.931Z</time></trkpt><trkpt lat="39.439287529375115" lon="8.520364953949407"><ele>139.2</ele><time>2026-04-27T16:22:31.931Z</time></trkpt><trkpt lat="39.439198740381755" lon="8.520378441982484"><ele>137.39999999999998</ele><time>2026-04-27T16:22:32.931Z</time></trkpt><trkpt lat="39.43912070025012" lon="8.52042690493074"><ele>135.6</ele><time>2026-04-27T16:22:33.931Z</time></trkpt><trkpt lat="39.439025038838146" lon="8.520459380710827"><ele>133.79999999999998</ele><time>2026-04-27T16:22:34.931Z</time></trkpt><trkpt lat="39.43892316703352" lon="8.520480623835411"><ele>132.0</ele><time>2026-04-27T16:22:35.931Z</time></trkpt><trkpt lat="39.43882054849714" lon="8.52048559249732"><ele>131.0</ele><time>2026-04-27T16:22:36.931Z</time></trkpt><trkpt lat="39.43872925433857" lon="8.520470518495786"><ele>130.0</ele><time>2026-04-27T16:22:37.931Z</time></trkpt><trkpt lat="39.43865110523345" lon="8.520462592243055"><ele>129.0</ele><time>2026-04-27T16:22:38.931Z</time></trkpt><trkpt lat="39.438583262939794" lon="8.520427682718218"><ele>128.0</ele><time>2026-04-27T16:22:39.931Z</time></trkpt><trkpt lat="39.43850448853196" lon="8.520411008140503"><ele>127.0</ele><time>2026-04-27T16:22:40.931Z</time></trkpt><trkpt lat="39.43843683269035" lon="8.520401451157143"><ele>126.0</ele><time>2026-04-27T16:22:41.931Z</time></trkpt><trkpt lat="39.43833241385971" lon="8.520422431651964"><ele>126.0</ele><time>2026-04-27T16:22:43.931Z</time></trkpt><trkpt lat="39.438203895916956" lon="8.520476996132588"><ele>126.0</ele><time>2026-04-27T16:22:45.931Z</time></trkpt><trkpt lat="39.438125810130614" lon="8.52051918372179"><ele>126.0</ele><time>2026-04-27T16:22:46.931Z</time></trkpt><trkpt lat="39.43806387510761" lon="8.520544010265027"><ele>126.0</ele><time>2026-04-27T16:22:47.931Z</time></trkpt><trkpt lat="39.43800035528246" lon="8.520530257596548"><ele>126.0</ele><time>2026-04-27T16:22:48.931Z</time></trkpt><trkpt lat="39.43792972857755" lon="8.52048822258344"><ele>126.0</ele><time>2026-04-27T16:22:49.931Z</time></trkpt><trkpt lat="39.43786795690969" lon="8.5204130720007"><ele>123.66666666666667</ele><time>2026-04-27T16:22:50.931Z</time></trkpt><trkpt lat="39.43781657365363" lon="8.52032994570947"><ele>121.33333333333334</ele><time>2026-04-27T16:22:51.931Z</time></trkpt><trkpt lat="39.43777339667955" lon="8.52023800517208"><ele>119.0</ele><time>2026-04-27T16:22:52.931Z</time></trkpt><trkpt lat="39.437737911328654" lon="8.52014302388199"><ele>116.66666666666667</ele><time>2026-04-27T16:22:53.931Z</time></trkpt><trkpt lat="39.43772018930266" lon="8.520042195790671"><ele>114.33333333333334</ele><time>2026-04-27T16:22:54.931Z</time></trkpt><trkpt lat="39.4376975617609" lon="8.519942695053453"><ele>112.0</ele><time>2026-04-27T16:22:55.931Z</time></trkpt><trkpt lat="39.437653904161145" lon="8.519848789865286"><ele>112.00000000000001</ele><time>2026-04-27T16:22:56.931Z</time></trkpt><trkpt lat="39.437631250357164" lon="8.519767185353116"><ele>112.0</ele><time>2026-04-27T16:22:57.931Z</time></trkpt><trkpt lat="39.43754520780226" lon="8.519726524495775"><ele>112.0</ele><time>2026-04-27T16:22:58.931Z</time></trkpt><trkpt lat="39.43748154494169" lon="8.519701339869746"><ele>112.0</ele><time>2026-04-27T16:22:59.931Z</time></trkpt><trkpt lat="39.437414279310126" lon="8.519713966767842"><ele>112.00000000000001</ele><time>2026-04-27T16:23:00.931Z</time></trkpt><trkpt lat="39.43734839765594" lon="8.519704828448281"><ele>112.0</ele><time>2026-04-27T16:23:02.931Z</time></trkpt><trkpt lat="39.43735867334587" lon="8.519564315616325"><ele>111.39999999999999</ele><time>2026-04-27T16:23:05.931Z</time></trkpt><trkpt lat="39.43737143550693" lon="8.519448619648644"><ele>110.79999999999998</ele><time>2026-04-27T16:23:06.931Z</time></trkpt><trkpt lat="39.437384531744165" lon="8.519351231763965"><ele>110.2</ele><time>2026-04-27T16:23:07.931Z</time></trkpt><trkpt lat="39.43740199122659" lon="8.519239557334908"><ele>109.6</ele><time>2026-04-27T16:23:08.931Z</time></trkpt><trkpt lat="39.43742760965344" lon="8.519099811764153"><ele>109.0</ele><time>2026-04-27T16:23:09.93Z</time></trkpt><trkpt lat="39.437454264173894" lon="8.518964967236423"><ele>109.0</ele><time>2026-04-27T16:23:10.93Z</time></trkpt><trkpt lat="39.437478209736845" lon="8.518830972678803"><ele>109.0</ele><time>2026-04-27T16:23:11.93Z</time></trkpt><trkpt lat="39.43751510506236" lon="8.51868974869387"><ele>109.0</ele><time>2026-04-27T16:23:12.93Z</time></trkpt><trkpt lat="39.43754899012726" lon="8.518546795466138"><ele>109.0</ele><time>2026-04-27T16:23:13.929Z</time></trkpt><trkpt lat="39.43756614465175" lon="8.518405072733486"><ele>109.0</ele><time>2026-04-27T16:23:14.929Z</time></trkpt><trkpt lat="39.43756966834012" lon="8.518273351009062"><ele>108.6</ele><time>2026-04-27T16:23:15.93Z</time></trkpt><trkpt lat="39.43755628154677" lon="8.518147519396598"><ele>108.2</ele><time>2026-04-27T16:23:16.93Z</time></trkpt><trkpt lat="39.43752216274886" lon="8.518026091827478"><ele>107.79999999999998</ele><time>2026-04-27T16:23:17.93Z</time></trkpt><trkpt lat="39.43747882516741" lon="8.51791178923609"><ele>107.39999999999999</ele><time>2026-04-27T16:23:18.93Z</time></trkpt><trkpt lat="39.437448790892454" lon="8.517796154230535"><ele>107.0</ele><time>2026-04-27T16:23:19.93Z</time></trkpt><trkpt lat="39.437384498773326" lon="8.517700292249069"><ele>107.0</ele><time>2026-04-27T16:23:20.93Z</time></trkpt><trkpt lat="39.43730281288283" lon="8.517631531144245"><ele>106.99999999999999</ele><time>2026-04-27T16:23:21.929Z</time></trkpt><trkpt lat="39.43722180149255" lon="8.517538913054757"><ele>106.99999999999999</ele><time>2026-04-27T16:23:22.93Z</time></trkpt><trkpt lat="39.437120681082504" lon="8.517454716722819"><ele>107.0</ele><time>2026-04-27T16:23:23.93Z</time></trkpt><trkpt lat="39.437033361925316" lon="8.517369373701236"><ele>107.0</ele><time>2026-04-27T16:23:24.93Z</time></trkpt><trkpt lat="39.436967068861875" lon="8.517281556333394"><ele>105.99999999999999</ele><time>2026-04-27T16:23:25.93Z</time></trkpt><trkpt lat="39.436899900757794" lon="8.517194598418703"><ele>105.0</ele><time>2026-04-27T16:23:26.93Z</time></trkpt><trkpt lat="39.43684507647015" lon="8.517097463189277"><ele>104.0</ele><time>2026-04-27T16:23:27.93Z</time></trkpt><trkpt lat="39.436798142323305" lon="8.517014873173833"><ele>103.0</ele><time>2026-04-27T16:23:28.93Z</time></trkpt><trkpt lat="39.43677553131034" lon="8.516921193075076"><ele>101.99999999999999</ele><time>2026-04-27T16:23:29.93Z</time></trkpt><trkpt lat="39.43675776247086" lon="8.516833780500813"><ele>101.0</ele><time>2026-04-27T16:23:30.93Z</time></trkpt><trkpt lat="39.43673713444608" lon="8.516712535915312"><ele>100.19999999999999</ele><time>2026-04-27T16:23:31.93Z</time></trkpt><trkpt lat="39.436721546432466" lon="8.51658553207971"><ele>99.39999999999999</ele><time>2026-04-27T16:23:32.93Z</time></trkpt><trkpt lat="39.43671725041279" lon="8.516461088830777"><ele>98.6</ele><time>2026-04-27T16:23:33.93Z</time></trkpt><trkpt lat="39.43670984806035" lon="8.516319658667252"><ele>97.8</ele><time>2026-04-27T16:23:34.93Z</time></trkpt><trkpt lat="39.43670944424236" lon="8.516182861381592"><ele>97.0</ele><time>2026-04-27T16:23:35.93Z</time></trkpt><trkpt lat="39.436722752669944" lon="8.516054886890835"><ele>96.6</ele><time>2026-04-27T16:23:36.93Z</time></trkpt><trkpt lat="39.436755964925666" lon="8.515945377291755"><ele>96.19999999999999</ele><time>2026-04-27T16:23:37.93Z</time></trkpt><trkpt lat="39.436791160337854" lon="8.515844101624552"><ele>95.8</ele><time>2026-04-27T16:23:38.93Z</time></trkpt><trkpt lat="39.4368302124648" lon="8.515717431443885"><ele>95.4</ele><time>2026-04-27T16:23:39.93Z</time></trkpt><trkpt lat="39.43686896162467" lon="8.515579899241647"><ele>95.0</ele><time>2026-04-27T16:23:40.93Z</time></trkpt><trkpt lat="39.43690577081751" lon="8.515446384556245"><ele>94.6</ele><time>2026-04-27T16:23:41.93Z</time></trkpt><trkpt lat="39.436939857832584" lon="8.515315510159127"><ele>94.2</ele><time>2026-04-27T16:23:42.93Z</time></trkpt><trkpt lat="39.43696483275774" lon="8.515188303173572"><ele>93.80000000000001</ele><time>2026-04-27T16:23:43.93Z</time></trkpt><trkpt lat="39.436986275271124" lon="8.515062282626461"><ele>93.4</ele><time>2026-04-27T16:23:44.93Z</time></trkpt><trkpt lat="39.437000902339506" lon="8.514953685586148"><ele>93.0</ele><time>2026-04-27T16:23:45.93Z</time></trkpt><trkpt lat="39.43701499835948" lon="8.514835424532722"><ele>93.0</ele><time>2026-04-27T16:23:46.93Z</time></trkpt><trkpt lat="39.43702681137293" lon="8.51470715550557"><ele>93.0</ele><time>2026-04-27T16:23:47.93Z</time></trkpt><trkpt lat="39.43703889762785" lon="8.51457797064272"><ele>93.0</ele><time>2026-04-27T16:23:48.93Z</time></trkpt><trkpt lat="39.437060218143934" lon="8.5144447401552"><ele>93.0</ele><time>2026-04-27T16:23:49.93Z</time></trkpt><trkpt lat="39.43708276754067" lon="8.514298026229365"><ele>93.0</ele><time>2026-04-27T16:23:50.93Z</time></trkpt><trkpt lat="39.43709979487685" lon="8.514156873032306"><ele>92.4</ele><time>2026-04-27T16:23:51.93Z</time></trkpt><trkpt lat="39.437113759344996" lon="8.514020836995067"><ele>91.80000000000001</ele><time>2026-04-27T16:23:52.93Z</time></trkpt><trkpt lat="39.43712692615463" lon="8.513886087437019"><ele>91.2</ele><time>2026-04-27T16:23:53.93Z</time></trkpt><trkpt lat="39.437139287150856" lon="8.51377200485643"><ele>90.6</ele><time>2026-04-27T16:23:54.93Z</time></trkpt><trkpt lat="39.437150470250394" lon="8.513668527702926"><ele>90.0</ele><time>2026-04-27T16:23:55.93Z</time></trkpt><trkpt lat="39.43715803174225" lon="8.513567698437614"><ele>89.6</ele><time>2026-04-27T16:23:56.93Z</time></trkpt><trkpt lat="39.437148237535624" lon="8.51346037135217"><ele>89.2</ele><time>2026-04-27T16:23:57.93Z</time></trkpt><trkpt lat="39.43713646846488" lon="8.513338367851484"><ele>88.80000000000001</ele><time>2026-04-27T16:23:58.93Z</time></trkpt><trkpt lat="39.437104648643846" lon="8.513206889940871"><ele>88.4</ele><time>2026-04-27T16:23:59.93Z</time></trkpt><trkpt lat="39.43707004480321" lon="8.513083140701815"><ele>88.0</ele><time>2026-04-27T16:24:00.93Z</time></trkpt><trkpt lat="39.437016066591404" lon="8.512980388957509"><ele>87.80000000000001</ele><time>2026-04-27T16:24:01.93Z</time></trkpt><trkpt lat="39.436953339516585" lon="8.512865864737456"><ele>87.6</ele><time>2026-04-27T16:24:02.93Z</time></trkpt><trkpt lat="39.436878578085164" lon="8.512745342432504"><ele>87.4</ele><time>2026-04-27T16:24:03.93Z</time></trkpt><trkpt lat="39.436811611098605" lon="8.512632467912365"><ele>87.19999999999999</ele><time>2026-04-27T16:24:04.93Z</time></trkpt><trkpt lat="39.43675609515135" lon="8.51252653926386"><ele>87.0</ele><time>2026-04-27T16:24:05.93Z</time></trkpt><trkpt lat="39.436720890124064" lon="8.512427004403456"><ele>87.0</ele><time>2026-04-27T16:24:06.93Z</time></trkpt><trkpt lat="39.43669460682122" lon="8.512314610631591"><ele>87.0</ele><time>2026-04-27T16:24:07.93Z</time></trkpt><trkpt lat="39.436685098663666" lon="8.512199810767969"><ele>87.0</ele><time>2026-04-27T16:24:08.93Z</time></trkpt><trkpt lat="39.43669732866175" lon="8.512090763466512"><ele>87.0</ele><time>2026-04-27T16:24:09.93Z</time></trkpt><trkpt lat="39.43670720975888" lon="8.511966129794608"><ele>87.0</ele><time>2026-04-27T16:24:10.93Z</time></trkpt><trkpt lat="39.436715391884256" lon="8.511834404663166"><ele>86.6</ele><time>2026-04-27T16:24:11.93Z</time></trkpt><trkpt lat="39.43671584639226" lon="8.51170824931083"><ele>86.19999999999999</ele><time>2026-04-27T16:24:12.93Z</time></trkpt><trkpt lat="39.43671536829307" lon="8.511576162453256"><ele>85.8</ele><time>2026-04-27T16:24:13.93Z</time></trkpt><trkpt lat="39.436700460221815" lon="8.51144697176527"><ele>85.4</ele><time>2026-04-27T16:24:14.93Z</time></trkpt><trkpt lat="39.43667186266079" lon="8.511319742798293"><ele>85.0</ele><time>2026-04-27T16:24:15.93Z</time></trkpt><trkpt lat="39.436633194863504" lon="8.511186493943965"><ele>84.75</ele><time>2026-04-27T16:24:16.93Z</time></trkpt><trkpt lat="39.43660737187706" lon="8.511047542254975"><ele>84.5</ele><time>2026-04-27T16:24:17.93Z</time></trkpt><trkpt lat="39.4365854898505" lon="8.51091590764916"><ele>84.25</ele><time>2026-04-27T16:24:18.93Z</time></trkpt><trkpt lat="39.436549137973714" lon="8.510779540950233"><ele>84.0</ele><time>2026-04-27T16:24:19.93Z</time></trkpt><trkpt lat="39.43651976336195" lon="8.510621557552792"><ele>84.0</ele><time>2026-04-27T16:24:20.93Z</time></trkpt><trkpt lat="39.43649776092251" lon="8.510470282906173"><ele>84.0</ele><time>2026-04-27T16:24:21.93Z</time></trkpt><trkpt lat="39.43646937367599" lon="8.510328932969403"><ele>84.0</ele><time>2026-04-27T16:24:22.93Z</time></trkpt><trkpt lat="39.43645076357629" lon="8.510213283724244"><ele>84.0</ele><time>2026-04-27T16:24:23.93Z</time></trkpt><trkpt lat="39.43644793414245" lon="8.510090554649524"><ele>84.0</ele><time>2026-04-27T16:24:24.93Z</time></trkpt><trkpt lat="39.436459925009395" lon="8.509969786773494"><ele>83.6</ele><time>2026-04-27T16:24:25.93Z</time></trkpt><trkpt lat="39.436480905127596" lon="8.509867182015117"><ele>83.2</ele><time>2026-04-27T16:24:26.93Z</time></trkpt><trkpt lat="39.43650431564706" lon="8.509734008622017"><ele>82.8</ele><time>2026-04-27T16:24:27.93Z</time></trkpt><trkpt lat="39.43653341699074" lon="8.509582274967926"><ele>82.39999999999999</ele><time>2026-04-27T16:24:28.93Z</time></trkpt><trkpt lat="39.436557217211885" lon="8.509419212633766"><ele>82.0</ele><time>2026-04-27T16:24:29.93Z</time></trkpt><trkpt lat="39.436584615993546" lon="8.509270946165817"><ele>82.0</ele><time>2026-04-27T16:24:30.93Z</time></trkpt><trkpt lat="39.43663113511744" lon="8.509121107979324"><ele>82.0</ele><time>2026-04-27T16:24:31.93Z</time></trkpt><trkpt lat="39.43669656163858" lon="8.508967630683658"><ele>82.0</ele><time>2026-04-27T16:24:32.93Z</time></trkpt><trkpt lat="39.43678021616059" lon="8.508819046600653"><ele>82.0</ele><time>2026-04-27T16:24:33.93Z</time></trkpt><trkpt lat="39.43687341585659" lon="8.508668974845898"><ele>81.25</ele><time>2026-04-27T16:24:34.93Z</time></trkpt><trkpt lat="39.43697359530454" lon="8.508527189782983"><ele>80.5</ele><time>2026-04-27T16:24:35.93Z</time></trkpt><trkpt lat="39.437066856219815" lon="8.508399928905597"><ele>79.75</ele><time>2026-04-27T16:24:36.93Z</time></trkpt><trkpt lat="39.4371454270158" lon="8.50828034270042"><ele>79.0</ele><time>2026-04-27T16:24:37.93Z</time></trkpt><trkpt lat="39.437192068346064" lon="8.508200214655872"><ele>81.5</ele><time>2026-04-27T16:24:38.93Z</time></trkpt><trkpt lat="39.43718945083861" lon="8.508069908715603"><ele>84.0</ele><time>2026-04-27T16:24:40.93Z</time></trkpt><trkpt lat="39.437172111005474" lon="8.507980273619332"><ele>86.5</ele><time>2026-04-27T16:24:41.93Z</time></trkpt><trkpt lat="39.43715057383238" lon="8.507830695688956"><ele>89.0</ele><time>2026-04-27T16:24:43.93Z</time></trkpt><trkpt lat="39.437148131823704" lon="8.50774916544652"><ele>91.5</ele><time>2026-04-27T16:24:44.93Z</time></trkpt><trkpt lat="39.437148534578505" lon="8.507635450980334"><ele>94.0</ele><time>2026-04-27T16:24:45.93Z</time></trkpt><trkpt lat="39.437138290021785" lon="8.507530642250655"><ele>90.8</ele><time>2026-04-27T16:24:46.93Z</time></trkpt><trkpt lat="39.4371245664475" lon="8.507436517100603"><ele>87.60000000000001</ele><time>2026-04-27T16:24:47.93Z</time></trkpt><trkpt lat="39.43708768000679" lon="8.507359064662804"><ele>84.4</ele><time>2026-04-27T16:24:48.93Z</time></trkpt><trkpt lat="39.43704122758818" lon="8.507269238123053"><ele>81.2</ele><time>2026-04-27T16:24:49.93Z</time></trkpt><trkpt lat="39.43696969550774" lon="8.507154422958399"><ele>78.0</ele><time>2026-04-27T16:24:50.93Z</time></trkpt><trkpt lat="39.436890112290996" lon="8.507042313611684"><ele>78.0</ele><time>2026-04-27T16:24:51.93Z</time></trkpt><trkpt lat="39.436812356003145" lon="8.5069238480798"><ele>78.0</ele><time>2026-04-27T16:24:52.93Z</time></trkpt><trkpt lat="39.43674957769915" lon="8.506815331454602"><ele>78.0</ele><time>2026-04-27T16:24:53.93Z</time></trkpt><trkpt lat="39.436697625003006" lon="8.506690525300085"><ele>78.0</ele><time>2026-04-27T16:24:54.93Z</time></trkpt><trkpt lat="39.43664829807009" lon="8.506550759726908"><ele>78.0</ele><time>2026-04-27T16:24:55.93Z</time></trkpt><trkpt lat="39.43659853883486" lon="8.506411932625621"><ele>78.0</ele><time>2026-04-27T16:24:56.93Z</time></trkpt><trkpt lat="39.43655165410913" lon="8.506279391365506"><ele>78.0</ele><time>2026-04-27T16:24:57.93Z</time></trkpt><trkpt lat="39.43650324157397" lon="8.506158672203517"><ele>78.0</ele><time>2026-04-27T16:24:58.93Z</time></trkpt><trkpt lat="39.43647524605774" lon="8.506033313179431"><ele>78.0</ele><time>2026-04-27T16:24:59.93Z</time></trkpt><trkpt lat="39.43645785730305" lon="8.505914974058367"><ele>78.0</ele><time>2026-04-27T16:25:00.93Z</time></trkpt><trkpt lat="39.43644623213199" lon="8.505795041380905"><ele>78.0</ele><time>2026-04-27T16:25:01.93Z</time></trkpt><trkpt lat="39.436422032788904" lon="8.505693651206006"><ele>78.0</ele><time>2026-04-27T16:25:02.93Z</time></trkpt><trkpt lat="39.43639667416802" lon="8.50560544251036"><ele>78.0</ele><time>2026-04-27T16:25:03.93Z</time></trkpt><trkpt lat="39.43636396742642" lon="8.505493459538714"><ele>78.0</ele><time>2026-04-27T16:25:04.93Z</time></trkpt><trkpt lat="39.436351175281956" lon="8.505349915872669"><ele>78.0</ele><time>2026-04-27T16:25:05.93Z</time></trkpt><trkpt lat="39.436356696447554" lon="8.505197757135702"><ele>78.0</ele><time>2026-04-27T16:25:06.93Z</time></trkpt><trkpt lat="39.43636170064715" lon="8.505039964472562"><ele>78.0</ele><time>2026-04-27T16:25:07.93Z</time></trkpt><trkpt lat="39.436369474985696" lon="8.504906071572224"><ele>78.0</ele><time>2026-04-27T16:25:08.93Z</time></trkpt><trkpt lat="39.436384320177645" lon="8.504813712923744"><ele>78.0</ele><time>2026-04-27T16:25:09.93Z</time></trkpt><trkpt lat="39.43639584006742" lon="8.504722882338966"><ele>78.0</ele><time>2026-04-27T16:25:10.93Z</time></trkpt><trkpt lat="39.436413183523705" lon="8.504608421010213"><ele>78.0</ele><time>2026-04-27T16:25:11.93Z</time></trkpt><trkpt lat="39.43643154011658" lon="8.504475496413706"><ele>78.0</ele><time>2026-04-27T16:25:12.93Z</time></trkpt><trkpt lat="39.43644894643025" lon="8.504326745535765"><ele>78.0</ele><time>2026-04-27T16:25:13.93Z</time></trkpt><trkpt lat="39.436466104917436" lon="8.504161460844028"><ele>78.0</ele><time>2026-04-27T16:25:14.93Z</time></trkpt><trkpt lat="39.436480227916036" lon="8.503982546867302"><ele>77.0</ele><time>2026-04-27T16:25:15.929Z</time></trkpt><trkpt lat="39.43648477554278" lon="8.503791200255078"><ele>76.0</ele><time>2026-04-27T16:25:16.928Z</time></trkpt><trkpt lat="39.43648181130549" lon="8.503593403024347"><ele>75.0</ele><time>2026-04-27T16:25:17.928Z</time></trkpt><trkpt lat="39.4364826218807" lon="8.503397814446513"><ele>74.75</ele><time>2026-04-27T16:25:18.928Z</time></trkpt><trkpt lat="39.436484177058865" lon="8.503210918572064"><ele>74.5</ele><time>2026-04-27T16:25:19.928Z</time></trkpt><trkpt lat="39.436492174609874" lon="8.503018342312796"><ele>74.25</ele><time>2026-04-27T16:25:20.928Z</time></trkpt><trkpt lat="39.436500410130506" lon="8.502833789203951"><ele>74.0</ele><time>2026-04-27T16:25:21.928Z</time></trkpt><trkpt lat="39.43650149527525" lon="8.502655256376002"><ele>73.8</ele><time>2026-04-27T16:25:22.928Z</time></trkpt><trkpt lat="39.436492065574285" lon="8.50250037174623"><ele>73.60000000000001</ele><time>2026-04-27T16:25:23.928Z</time></trkpt><trkpt lat="39.436476367714015" lon="8.502365189946069"><ele>73.4</ele><time>2026-04-27T16:25:24.928Z</time></trkpt><trkpt lat="39.43646509384271" lon="8.502238134143331"><ele>73.2</ele><time>2026-04-27T16:25:25.928Z</time></trkpt><trkpt lat="39.43644813696392" lon="8.502141612742113"><ele>73.0</ele><time>2026-04-27T16:25:26.928Z</time></trkpt><trkpt lat="39.43643433904492" lon="8.50202321085456"><ele>71.25</ele><time>2026-04-27T16:25:28.928Z</time></trkpt><trkpt lat="39.43630141667355" lon="8.501969863284694"><ele>69.5</ele><time>2026-04-27T16:25:29.928Z</time></trkpt><trkpt lat="39.43622140522735" lon="8.501892685856388"><ele>67.75</ele><time>2026-04-27T16:25:30.928Z</time></trkpt><trkpt lat="39.436136025072884" lon="8.5017984543334"><ele>66.0</ele><time>2026-04-27T16:25:31.928Z</time></trkpt><trkpt lat="39.43605088607364" lon="8.501691014360976"><ele>66.0</ele><time>2026-04-27T16:25:32.928Z</time></trkpt><trkpt lat="39.43596647839577" lon="8.501591389232264"><ele>66.0</ele><time>2026-04-27T16:25:33.928Z</time></trkpt><trkpt lat="39.435895403037556" lon="8.501486623521469"><ele>66.0</ele><time>2026-04-27T16:25:34.928Z</time></trkpt><trkpt lat="39.43583218907931" lon="8.501383678820503"><ele>66.0</ele><time>2026-04-27T16:25:35.928Z</time></trkpt><trkpt lat="39.435779118213695" lon="8.501291065442357"><ele>66.0</ele><time>2026-04-27T16:25:36.928Z</time></trkpt><trkpt lat="39.43572806132789" lon="8.501213235005922"><ele>66.8</ele><time>2026-04-27T16:25:37.928Z</time></trkpt><trkpt lat="39.43568522847642" lon="8.501129308181218"><ele>67.6</ele><time>2026-04-27T16:25:38.928Z</time></trkpt><trkpt lat="39.43564411168614" lon="8.50102658516124"><ele>68.4</ele><time>2026-04-27T16:25:39.928Z</time></trkpt><trkpt lat="39.43561213005196" lon="8.500903810678384"><ele>69.2</ele><time>2026-04-27T16:25:40.928Z</time></trkpt><trkpt lat="39.43557295413554" lon="8.500764758755686"><ele>70.0</ele><time>2026-04-27T16:25:41.928Z</time></trkpt><trkpt lat="39.435529163760094" lon="8.500632546614618"><ele>70.0</ele><time>2026-04-27T16:25:42.928Z</time></trkpt><trkpt lat="39.43548813567582" lon="8.500494391142912"><ele>70.0</ele><time>2026-04-27T16:25:43.928Z</time></trkpt><trkpt lat="39.43544623762279" lon="8.500353801576395"><ele>70.0</ele><time>2026-04-27T16:25:44.928Z</time></trkpt><trkpt lat="39.43540442442796" lon="8.500226701644108"><ele>70.0</ele><time>2026-04-27T16:25:45.928Z</time></trkpt><trkpt lat="39.43536927847492" lon="8.500112156931367"><ele>70.0</ele><time>2026-04-27T16:25:46.928Z</time></trkpt><trkpt lat="39.43532707321207" lon="8.500004383245495"><ele>68.83333333333333</ele><time>2026-04-27T16:25:47.928Z</time></trkpt><trkpt lat="39.43531373635987" lon="8.49990281686115"><ele>67.66666666666666</ele><time>2026-04-27T16:25:48.928Z</time></trkpt><trkpt lat="39.43530174896088" lon="8.499812472328633"><ele>66.5</ele><time>2026-04-27T16:25:49.928Z</time></trkpt><trkpt lat="39.43531509522151" lon="8.499732451811752"><ele>65.33333333333333</ele><time>2026-04-27T16:25:52.928Z</time></trkpt><trkpt lat="39.43520932990625" lon="8.499725284571722"><ele>64.16666666666667</ele><time>2026-04-27T16:26:01.928Z</time></trkpt><trkpt lat="39.435116025525055" lon="8.499833069263024"><ele>63.0</ele><time>2026-04-27T16:26:03.928Z</time></trkpt><trkpt lat="39.43507018990581" lon="8.49989104315044"><ele>63.0</ele><time>2026-04-27T16:26:04.928Z</time></trkpt><trkpt lat="39.43502043593198" lon="8.499946144397882"><ele>63.0</ele><time>2026-04-27T16:26:05.928Z</time></trkpt><trkpt lat="39.43493254769488" lon="8.500045036795596"><ele>63.0</ele><time>2026-04-27T16:26:07.928Z</time></trkpt><trkpt lat="39.43482634662297" lon="8.500124710975925"><ele>63.0</ele><time>2026-04-27T16:26:09.928Z</time></trkpt><trkpt lat="39.43471404262256" lon="8.500130313408945"><ele>63.0</ele><time>2026-04-27T16:26:11.928Z</time></trkpt><trkpt lat="39.434635252218236" lon="8.500303495815574"><ele>63.0</ele><time>2026-04-27T16:26:16.928Z</time></trkpt><trkpt lat="39.434741553491286" lon="8.5004126628868"><ele>63.0</ele><time>2026-04-27T16:26:18.928Z</time></trkpt><trkpt lat="39.43464957148868" lon="8.500471526625432"><ele>63.0</ele><time>2026-04-27T16:26:25.928Z</time></trkpt><trkpt lat="39.43461161099565" lon="8.500537570910865"><ele>63.0</ele><time>2026-04-27T16:26:26.928Z</time></trkpt><trkpt lat="39.43456925441369" lon="8.500611542719241"><ele>63.0</ele><time>2026-04-27T16:26:27.928Z</time></trkpt><trkpt lat="39.434528866845156" lon="8.500682075750905"><ele>63.0</ele><time>2026-04-27T16:26:28.928Z</time></trkpt><trkpt lat="39.43448595537459" lon="8.500751725686756"><ele>63.4</ele><time>2026-04-27T16:26:29.928Z</time></trkpt><trkpt lat="39.434434968494145" lon="8.50082305336417"><ele>63.8</ele><time>2026-04-27T16:26:30.928Z</time></trkpt><trkpt lat="39.43438446296014" lon="8.500935647241763"><ele>64.2</ele><time>2026-04-27T16:26:31.928Z</time></trkpt><trkpt lat="39.43434823909115" lon="8.50106322130823"><ele>64.6</ele><time>2026-04-27T16:26:32.928Z</time></trkpt><trkpt lat="39.43431461859062" lon="8.501192887135378"><ele>65.0</ele><time>2026-04-27T16:26:33.928Z</time></trkpt><trkpt lat="39.43428771299372" lon="8.501320769185345"><ele>65.66666666666667</ele><time>2026-04-27T16:26:34.928Z</time></trkpt><trkpt lat="39.43425962857845" lon="8.501427216129464"><ele>66.33333333333334</ele><time>2026-04-27T16:26:35.928Z</time></trkpt><trkpt lat="39.43421611748835" lon="8.501519455920734"><ele>67.0</ele><time>2026-04-27T16:26:36.928Z</time></trkpt><trkpt lat="39.4341715172598" lon="8.501611992474954"><ele>67.66666666666667</ele><time>2026-04-27T16:26:37.928Z</time></trkpt><trkpt lat="39.43412976207454" lon="8.501716094106035"><ele>68.33333333333333</ele><time>2026-04-27T16:26:38.928Z</time></trkpt><trkpt lat="39.43408945991459" lon="8.501828557424364"><ele>69.0</ele><time>2026-04-27T16:26:39.928Z</time></trkpt><trkpt lat="39.43404982669291" lon="8.50194167061571"><ele>69.0</ele><time>2026-04-27T16:26:40.928Z</time></trkpt><trkpt lat="39.43401064737459" lon="8.502051104814301"><ele>69.0</ele><time>2026-04-27T16:26:41.928Z</time></trkpt><trkpt lat="39.433974101699725" lon="8.502147631292095"><ele>69.0</ele><time>2026-04-27T16:26:42.928Z</time></trkpt><trkpt lat="39.433930050102056" lon="8.502242085518912"><ele>69.0</ele><time>2026-04-27T16:26:43.928Z</time></trkpt><trkpt lat="39.43386933426412" lon="8.502332408349838"><ele>69.0</ele><time>2026-04-27T16:26:44.928Z</time></trkpt><trkpt lat="39.43378284400223" lon="8.502388063784352"><ele>68.8</ele><time>2026-04-27T16:26:45.928Z</time></trkpt><trkpt lat="39.43369390288421" lon="8.502427149506062"><ele>68.60000000000001</ele><time>2026-04-27T16:26:46.928Z</time></trkpt><trkpt lat="39.43360212316097" lon="8.502467855181656"><ele>68.4</ele><time>2026-04-27T16:26:47.928Z</time></trkpt><trkpt lat="39.43351018329871" lon="8.502509390080517"><ele>68.2</ele><time>2026-04-27T16:26:48.928Z</time></trkpt><trkpt lat="39.43341280612092" lon="8.502551167372665"><ele>68.0</ele><time>2026-04-27T16:26:49.927Z</time></trkpt><trkpt lat="39.43333287825928" lon="8.502654428945796"><ele>68.0</ele><time>2026-04-27T16:26:50.927Z</time></trkpt><trkpt lat="39.43324796711197" lon="8.502721890797169"><ele>68.0</ele><time>2026-04-27T16:26:51.927Z</time></trkpt><trkpt lat="39.43314516656352" lon="8.502770349807038"><ele>68.0</ele><time>2026-04-27T16:26:52.927Z</time></trkpt><trkpt lat="39.433043075664386" lon="8.502792156070996"><ele>68.0</ele><time>2026-04-27T16:26:53.927Z</time></trkpt><trkpt lat="39.432930898529946" lon="8.502797317471408"><ele>68.0</ele><time>2026-04-27T16:26:54.927Z</time></trkpt><trkpt lat="39.43280995461573" lon="8.502786388405728"><ele>68.75</ele><time>2026-04-27T16:26:55.927Z</time></trkpt><trkpt lat="39.43270005781709" lon="8.502795281101877"><ele>69.5</ele><time>2026-04-27T16:26:56.927Z</time></trkpt><trkpt lat="39.43258978132518" lon="8.502817060847194"><ele>70.25</ele><time>2026-04-27T16:26:57.927Z</time></trkpt><trkpt lat="39.432465947238036" lon="8.502899983140876"><ele>71.0</ele><time>2026-04-27T16:26:58.927Z</time></trkpt><trkpt lat="39.43235021603256" lon="8.503009583926515"><ele>72.5</ele><time>2026-04-27T16:26:59.927Z</time></trkpt><trkpt lat="39.43223844512795" lon="8.503127777018369"><ele>74.0</ele><time>2026-04-27T16:27:00.927Z</time></trkpt><trkpt lat="39.432092634817096" lon="8.50319282086226"><ele>75.5</ele><time>2026-04-27T16:27:01.927Z</time></trkpt><trkpt lat="39.43198262744018" lon="8.503271724402543"><ele>77.0</ele><time>2026-04-27T16:27:02.927Z</time></trkpt><trkpt lat="39.432175986037926" lon="8.503138862875238"><ele>78.16666666666667</ele><time>2026-04-27T16:27:03.927Z</time></trkpt><trkpt lat="39.432116451833075" lon="8.503110379627373"><ele>79.33333333333334</ele><time>2026-04-27T16:27:05.927Z</time></trkpt><trkpt lat="39.43210250182899" lon="8.502961199937868"><ele>80.5</ele><time>2026-04-27T16:27:07.927Z</time></trkpt><trkpt lat="39.43206930718094" lon="8.502800353890304"><ele>81.66666666666667</ele><time>2026-04-27T16:27:09.927Z</time></trkpt><trkpt lat="39.43203765842739" lon="8.502718182384424"><ele>82.83333333333333</ele><time>2026-04-27T16:27:10.927Z</time></trkpt><trkpt lat="39.432003287704276" lon="8.502646142987107"><ele>84.0</ele><time>2026-04-27T16:27:11.927Z</time></trkpt><trkpt lat="39.43195781237821" lon="8.502584311394063"><ele>84.33333333333333</ele><time>2026-04-27T16:27:12.927Z</time></trkpt><trkpt lat="39.43191380796141" lon="8.502507776012832"><ele>84.66666666666667</ele><time>2026-04-27T16:27:13.927Z</time></trkpt><trkpt lat="39.43183632541799" lon="8.502447325226496"><ele>85.0</ele><time>2026-04-27T16:27:14.927Z</time></trkpt><trkpt lat="39.431813695674876" lon="8.502353586469047"><ele>85.33333333333334</ele><time>2026-04-27T16:27:15.927Z</time></trkpt><trkpt lat="39.43182079237054" lon="8.50226473799863"><ele>85.66666666666667</ele><time>2026-04-27T16:27:16.927Z</time></trkpt><trkpt lat="39.431797801959554" lon="8.502169487436168"><ele>86.0</ele><time>2026-04-27T16:27:17.927Z</time></trkpt><trkpt lat="39.43176130391418" lon="8.502082272083605"><ele>84.39999999999999</ele><time>2026-04-27T16:27:18.927Z</time></trkpt><trkpt lat="39.431721492811874" lon="8.501995869766912"><ele>82.8</ele><time>2026-04-27T16:27:19.927Z</time></trkpt><trkpt lat="39.431660409696974" lon="8.501908421425568"><ele>81.19999999999999</ele><time>2026-04-27T16:27:20.926Z</time></trkpt><trkpt lat="39.431608265163646" lon="8.501806796967944"><ele>79.6</ele><time>2026-04-27T16:27:21.926Z</time></trkpt><trkpt lat="39.431524881984316" lon="8.501718605388657"><ele>78.0</ele><time>2026-04-27T16:27:22.926Z</time></trkpt><trkpt lat="39.43144080168111" lon="8.501647658081117"><ele>78.0</ele><time>2026-04-27T16:27:23.926Z</time></trkpt><trkpt lat="39.43135662305292" lon="8.501604455394462"><ele>78.0</ele><time>2026-04-27T16:27:24.926Z</time></trkpt><trkpt lat="39.43127604288603" lon="8.501598206078038"><ele>78.0</ele><time>2026-04-27T16:27:25.926Z</time></trkpt><trkpt lat="39.431191517643725" lon="8.501608501035989"><ele>78.0</ele><time>2026-04-27T16:27:26.927Z</time></trkpt><trkpt lat="39.43108918907812" lon="8.501635415909947"><ele>78.0</ele><time>2026-04-27T16:27:27.926Z</time></trkpt><trkpt lat="39.431002778811546" lon="8.501663068016736"><ele>77.8</ele><time>2026-04-27T16:27:28.926Z</time></trkpt><trkpt lat="39.430921356703564" lon="8.501714051350795"><ele>77.6</ele><time>2026-04-27T16:27:29.926Z</time></trkpt><trkpt lat="39.430842427611076" lon="8.501837218273614"><ele>77.4</ele><time>2026-04-27T16:27:31.926Z</time></trkpt><trkpt lat="39.43084362005002" lon="8.50194093574441"><ele>77.2</ele><time>2026-04-27T16:27:32.926Z</time></trkpt><trkpt lat="39.43082921552624" lon="8.502049605808804"><ele>77.0</ele><time>2026-04-27T16:27:33.926Z</time></trkpt><trkpt lat="39.43080241241678" lon="8.502153642242146"><ele>79.33333333333334</ele><time>2026-04-27T16:27:34.926Z</time></trkpt><trkpt lat="39.43076068468341" lon="8.502265430778376"><ele>81.66666666666667</ele><time>2026-04-27T16:27:35.926Z</time></trkpt><trkpt lat="39.43070905933363" lon="8.50233848443721"><ele>84.0</ele><time>2026-04-27T16:27:36.926Z</time></trkpt><trkpt lat="39.43066721128462" lon="8.502416260168154"><ele>86.33333333333333</ele><time>2026-04-27T16:27:37.926Z</time></trkpt><trkpt lat="39.43062668319344" lon="8.502492840948882"><ele>88.66666666666666</ele><time>2026-04-27T16:27:38.926Z</time></trkpt><trkpt lat="39.4305831883314" lon="8.502562616998278"><ele>91.0</ele><time>2026-04-27T16:27:39.926Z</time></trkpt><trkpt lat="39.43047887924364" lon="8.502635858051741"><ele>88.39999999999999</ele><time>2026-04-27T16:27:41.926Z</time></trkpt><trkpt lat="39.43034362893186" lon="8.502612120995877"><ele>85.8</ele><time>2026-04-27T16:27:43.926Z</time></trkpt><trkpt lat="39.43026036158844" lon="8.50257569288993"><ele>83.19999999999999</ele><time>2026-04-27T16:27:44.926Z</time></trkpt><trkpt lat="39.43016576480282" lon="8.502559055345703"><ele>80.6</ele><time>2026-04-27T16:27:45.926Z</time></trkpt><trkpt lat="39.43006392299428" lon="8.502576173066222"><ele>78.0</ele><time>2026-04-27T16:27:46.926Z</time></trkpt><trkpt lat="39.42996392272044" lon="8.502583893720162"><ele>78.0</ele><time>2026-04-27T16:27:47.926Z</time></trkpt><trkpt lat="39.4298729692693" lon="8.502606603859254"><ele>78.0</ele><time>2026-04-27T16:27:48.926Z</time></trkpt><trkpt lat="39.429789296360674" lon="8.502649495052564"><ele>78.0</ele><time>2026-04-27T16:27:49.926Z</time></trkpt><trkpt lat="39.42971308070807" lon="8.502683946575045"><ele>78.0</ele><time>2026-04-27T16:27:50.926Z</time></trkpt><trkpt lat="39.42963863026504" lon="8.502685286488845"><ele>78.0</ele><time>2026-04-27T16:27:51.926Z</time></trkpt><trkpt lat="39.42956967644833" lon="8.502647838494278"><ele>78.0</ele><time>2026-04-27T16:27:52.926Z</time></trkpt><trkpt lat="39.42951125359621" lon="8.502572532664328"><ele>77.83333333333333</ele><time>2026-04-27T16:27:53.926Z</time></trkpt><trkpt lat="39.42941517842236" lon="8.502551727629715"><ele>77.66666666666667</ele><time>2026-04-27T16:27:54.926Z</time></trkpt><trkpt lat="39.429318967836814" lon="8.502578862541682"><ele>77.5</ele><time>2026-04-27T16:27:55.926Z</time></trkpt><trkpt lat="39.42922984465135" lon="8.502598809557988"><ele>77.33333333333334</ele><time>2026-04-27T16:27:56.926Z</time></trkpt><trkpt lat="39.42915846161771" lon="8.502635126444503"><ele>77.16666666666667</ele><time>2026-04-27T16:27:57.926Z</time></trkpt><trkpt lat="39.42908594129749" lon="8.502694633446083"><ele>77.0</ele><time>2026-04-27T16:27:58.926Z</time></trkpt><trkpt lat="39.429003070900336" lon="8.502749602718481"><ele>77.0</ele><time>2026-04-27T16:27:59.926Z</time></trkpt><trkpt lat="39.42891922920946" lon="8.502820599920959"><ele>77.0</ele><time>2026-04-27T16:28:00.926Z</time></trkpt><trkpt lat="39.428826028963755" lon="8.502896525107337"><ele>77.0</ele><time>2026-04-27T16:28:01.926Z</time></trkpt><trkpt lat="39.42872639207246" lon="8.502975233452984"><ele>77.0</ele><time>2026-04-27T16:28:02.926Z</time></trkpt><trkpt lat="39.42863089154197" lon="8.503046973440416"><ele>77.0</ele><time>2026-04-27T16:28:03.926Z</time></trkpt><trkpt lat="39.428539190093424" lon="8.50309691148126"><ele>78.8</ele><time>2026-04-27T16:28:04.926Z</time></trkpt><trkpt lat="39.42843927739003" lon="8.503139206242468"><ele>80.6</ele><time>2026-04-27T16:28:05.926Z</time></trkpt><trkpt lat="39.42835047315431" lon="8.503180721028668"><ele>82.39999999999999</ele><time>2026-04-27T16:28:06.926Z</time></trkpt><trkpt lat="39.42826110633282" lon="8.503265277406001"><ele>84.2</ele><time>2026-04-27T16:28:07.926Z</time></trkpt><trkpt lat="39.42817331142543" lon="8.503289387613247"><ele>86.0</ele><time>2026-04-27T16:28:08.926Z</time></trkpt><trkpt lat="39.42810252596292" lon="8.50331031011333"><ele>86.0</ele><time>2026-04-27T16:28:09.926Z</time></trkpt><trkpt lat="39.42802556032707" lon="8.503351958237635"><ele>86.0</ele><time>2026-04-27T16:28:10.926Z</time></trkpt><trkpt lat="39.427936930800165" lon="8.503374584951061"><ele>86.0</ele><time>2026-04-27T16:28:11.926Z</time></trkpt><trkpt lat="39.42784371566281" lon="8.503406387220245"><ele>86.0</ele><time>2026-04-27T16:28:12.926Z</time></trkpt><trkpt lat="39.427735424755845" lon="8.503430804089072"><ele>86.0</ele><time>2026-04-27T16:28:13.926Z</time></trkpt><trkpt lat="39.42764688046719" lon="8.503477562281924"><ele>86.16666666666667</ele><time>2026-04-27T16:28:14.926Z</time></trkpt><trkpt lat="39.42757899183479" lon="8.503526203399145"><ele>86.33333333333334</ele><time>2026-04-27T16:28:15.926Z</time></trkpt><trkpt lat="39.427523781153404" lon="8.503576904860642"><ele>86.5</ele><time>2026-04-27T16:28:16.926Z</time></trkpt><trkpt lat="39.42748015197618" lon="8.503636097012146"><ele>86.66666666666667</ele><time>2026-04-27T16:28:17.926Z</time></trkpt><trkpt lat="39.42746031616541" lon="8.503756149779562"><ele>86.83333333333333</ele><time>2026-04-27T16:28:18.926Z</time></trkpt><trkpt lat="39.427368034325795" lon="8.503829013175793"><ele>87.0</ele><time>2026-04-27T16:28:19.926Z</time></trkpt><trkpt lat="39.42731120193366" lon="8.503922885039218"><ele>87.0</ele><time>2026-04-27T16:28:20.926Z</time></trkpt><trkpt lat="39.427278010330255" lon="8.504022467769722"><ele>87.0</ele><time>2026-04-27T16:28:21.926Z</time></trkpt><trkpt lat="39.427226794974544" lon="8.504129236240656"><ele>87.0</ele><time>2026-04-27T16:28:22.926Z</time></trkpt><trkpt lat="39.427168929674174" lon="8.504245134074514"><ele>87.0</ele><time>2026-04-27T16:28:23.926Z</time></trkpt><trkpt lat="39.427090873753414" lon="8.50433558865182"><ele>87.0</ele><time>2026-04-27T16:28:24.926Z</time></trkpt><trkpt lat="39.4270226490577" lon="8.504458783054762"><ele>87.25</ele><time>2026-04-27T16:28:25.926Z</time></trkpt><trkpt lat="39.42693821195675" lon="8.504578051820552"><ele>87.5</ele><time>2026-04-27T16:28:26.926Z</time></trkpt><trkpt lat="39.42685151738032" lon="8.504678172594836"><ele>87.75</ele><time>2026-04-27T16:28:27.926Z</time></trkpt><trkpt lat="39.42674980701765" lon="8.504743859130723"><ele>88.0</ele><time>2026-04-27T16:28:28.926Z</time></trkpt><trkpt lat="39.42666073652449" lon="8.50481835480717"><ele>88.0</ele><time>2026-04-27T16:28:29.926Z</time></trkpt><trkpt lat="39.42658999337335" lon="8.504908963750678"><ele>88.0</ele><time>2026-04-27T16:28:30.926Z</time></trkpt><trkpt lat="39.42652958565403" lon="8.50498547685197"><ele>88.0</ele><time>2026-04-27T16:28:31.926Z</time></trkpt><trkpt lat="39.42648005425969" lon="8.505081761380202"><ele>88.0</ele><time>2026-04-27T16:28:32.926Z</time></trkpt><trkpt lat="39.4264260071489" lon="8.505152633998183"><ele>88.0</ele><time>2026-04-27T16:28:33.926Z</time></trkpt><trkpt lat="39.426416520699796" lon="8.505262161778196"><ele>88.0</ele><time>2026-04-27T16:28:34.926Z</time></trkpt><trkpt lat="39.426425074923785" lon="8.505380851973234"><ele>87.33333333333333</ele><time>2026-04-27T16:28:35.926Z</time></trkpt><trkpt lat="39.42646563204552" lon="8.505486295125053"><ele>86.66666666666666</ele><time>2026-04-27T16:28:36.926Z</time></trkpt><trkpt lat="39.42646715833687" lon="8.50557895005834"><ele>86.0</ele><time>2026-04-27T16:28:37.926Z</time></trkpt><trkpt lat="39.4264564503743" lon="8.505667853215812"><ele>85.33333333333333</ele><time>2026-04-27T16:28:38.926Z</time></trkpt><trkpt lat="39.426422659898435" lon="8.505756664101385"><ele>84.66666666666667</ele><time>2026-04-27T16:28:39.926Z</time></trkpt><trkpt lat="39.42639111512446" lon="8.505877863683725"><ele>84.0</ele><time>2026-04-27T16:28:40.926Z</time></trkpt><trkpt lat="39.42631065355182" lon="8.505972469036315"><ele>84.0</ele><time>2026-04-27T16:28:41.926Z</time></trkpt><trkpt lat="39.42624186422054" lon="8.50607394986274"><ele>84.0</ele><time>2026-04-27T16:28:42.926Z</time></trkpt><trkpt lat="39.42617303884352" lon="8.506170995926732"><ele>84.0</ele><time>2026-04-27T16:28:43.926Z</time></trkpt><trkpt lat="39.42608851392715" lon="8.506255775701826"><ele>84.0</ele><time>2026-04-27T16:28:44.926Z</time></trkpt><trkpt lat="39.42600602000123" lon="8.506341487497483"><ele>84.0</ele><time>2026-04-27T16:28:45.926Z</time></trkpt><trkpt lat="39.42591432903908" lon="8.506400845704693"><ele>83.80000000000001</ele><time>2026-04-27T16:28:46.926Z</time></trkpt><trkpt lat="39.42580962663792" lon="8.506464107983335"><ele>83.60000000000001</ele><time>2026-04-27T16:28:47.926Z</time></trkpt><trkpt lat="39.425711816058296" lon="8.506504362891807"><ele>83.4</ele><time>2026-04-27T16:28:48.926Z</time></trkpt><trkpt lat="39.425607564408416" lon="8.506553817889948"><ele>83.2</ele><time>2026-04-27T16:28:49.926Z</time></trkpt><trkpt lat="39.42550285051415" lon="8.506616107880394"><ele>83.0</ele><time>2026-04-27T16:28:50.926Z</time></trkpt><trkpt lat="39.425396176609595" lon="8.506673553757464"><ele>83.0</ele><time>2026-04-27T16:28:51.926Z</time></trkpt><trkpt lat="39.42530854200191" lon="8.50675067779643"><ele>83.0</ele><time>2026-04-27T16:28:52.926Z</time></trkpt><trkpt lat="39.42523765701218" lon="8.506825795483042"><ele>83.0</ele><time>2026-04-27T16:28:53.926Z</time></trkpt><trkpt lat="39.4251554816588" lon="8.506883993276984"><ele>83.0</ele><time>2026-04-27T16:28:54.926Z</time></trkpt><trkpt lat="39.425100593145174" lon="8.506954976670867"><ele>83.0</ele><time>2026-04-27T16:28:55.926Z</time></trkpt><trkpt lat="39.42506849441725" lon="8.50703568337527"><ele>83.0</ele><time>2026-04-27T16:28:56.926Z</time></trkpt><trkpt lat="39.425048100788985" lon="8.507113867697129"><ele>84.0</ele><time>2026-04-27T16:28:57.926Z</time></trkpt><trkpt lat="39.42506093922331" lon="8.507223682928835"><ele>85.0</ele><time>2026-04-27T16:28:58.926Z</time></trkpt><trkpt lat="39.42509209057992" lon="8.507326834885278"><ele>86.0</ele><time>2026-04-27T16:28:59.926Z</time></trkpt><trkpt lat="39.425133622844676" lon="8.507425560003886"><ele>87.0</ele><time>2026-04-27T16:29:00.926Z</time></trkpt><trkpt lat="39.425185203183844" lon="8.507520854395102"><ele>88.0</ele><time>2026-04-27T16:29:01.926Z</time></trkpt><trkpt lat="39.425248184235485" lon="8.507614885933956"><ele>89.0</ele><time>2026-04-27T16:29:02.926Z</time></trkpt><trkpt lat="39.42532752108332" lon="8.507709452537949"><ele>89.0</ele><time>2026-04-27T16:29:03.926Z</time></trkpt><trkpt lat="39.42538815460458" lon="8.5077974733779"><ele>89.0</ele><time>2026-04-27T16:29:04.926Z</time></trkpt><trkpt lat="39.42544264875219" lon="8.507906609085353"><ele>89.0</ele><time>2026-04-27T16:29:05.926Z</time></trkpt><trkpt lat="39.42550052425851" lon="8.508025800895643"><ele>89.0</ele><time>2026-04-27T16:29:06.926Z</time></trkpt><trkpt lat="39.425560352567246" lon="8.508146879401696"><ele>89.0</ele><time>2026-04-27T16:29:07.926Z</time></trkpt><trkpt lat="39.42562767554302" lon="8.508258972496638"><ele>89.2</ele><time>2026-04-27T16:29:08.926Z</time></trkpt><trkpt lat="39.42568986487685" lon="8.508346802290074"><ele>89.4</ele><time>2026-04-27T16:29:09.926Z</time></trkpt><trkpt lat="39.42573540024822" lon="8.508438173298238"><ele>89.6</ele><time>2026-04-27T16:29:10.926Z</time></trkpt><trkpt lat="39.425778716764846" lon="8.50854805221976"><ele>89.8</ele><time>2026-04-27T16:29:11.926Z</time></trkpt><trkpt lat="39.425816840864854" lon="8.508665370237342"><ele>90.0</ele><time>2026-04-27T16:29:12.926Z</time></trkpt><trkpt lat="39.42585439403235" lon="8.508792920767963"><ele>90.0</ele><time>2026-04-27T16:29:13.926Z</time></trkpt><trkpt lat="39.425912317546846" lon="8.508923307029557"><ele>90.0</ele><time>2026-04-27T16:29:14.926Z</time></trkpt><trkpt lat="39.42593166378443" lon="8.509054537210293"><ele>90.0</ele><time>2026-04-27T16:29:15.926Z</time></trkpt><trkpt lat="39.425907684181254" lon="8.509152770415028"><ele>90.0</ele><time>2026-04-27T16:29:16.926Z</time></trkpt><trkpt lat="39.42588752016421" lon="8.509267316383646"><ele>90.0</ele><time>2026-04-27T16:29:17.926Z</time></trkpt><trkpt lat="39.425860843231916" lon="8.509377727079821"><ele>90.0</ele><time>2026-04-27T16:29:18.926Z</time></trkpt><trkpt lat="39.42582552013975" lon="8.509490477432204"><ele>90.0</ele><time>2026-04-27T16:29:19.926Z</time></trkpt><trkpt lat="39.4257703659388" lon="8.50961986479008"><ele>90.0</ele><time>2026-04-27T16:29:20.926Z</time></trkpt><trkpt lat="39.42570900505221" lon="8.50973868398029"><ele>90.0</ele><time>2026-04-27T16:29:21.926Z</time></trkpt><trkpt lat="39.42563192584917" lon="8.509854227680677"><ele>90.0</ele><time>2026-04-27T16:29:22.926Z</time></trkpt><trkpt lat="39.42554537066032" lon="8.50996107029184"><ele>89.5</ele><time>2026-04-27T16:29:23.926Z</time></trkpt><trkpt lat="39.42545792054034" lon="8.510038430433932"><ele>89.0</ele><time>2026-04-27T16:29:24.926Z</time></trkpt><trkpt lat="39.42537036336643" lon="8.51008795902277"><ele>88.5</ele><time>2026-04-27T16:29:25.926Z</time></trkpt><trkpt lat="39.425300623311514" lon="8.510116874869395"><ele>88.0</ele><time>2026-04-27T16:29:27Z</time></trkpt><trkpt lat="39.42521403662184" lon="8.5101152964111"><ele>87.5</ele><time>2026-04-27T16:29:29Z</time></trkpt><trkpt lat="39.4251470644327" lon="8.510065435046172"><ele>87.0</ele><time>2026-04-27T16:29:30Z</time></trkpt><trkpt lat="39.42507494807305" lon="8.510010724782509"><ele>87.0</ele><time>2026-04-27T16:29:31Z</time></trkpt><trkpt lat="39.425013204794695" lon="8.509949909914143"><ele>87.0</ele><time>2026-04-27T16:29:32Z</time></trkpt><trkpt lat="39.42495432788152" lon="8.509873197809105"><ele>87.0</ele><time>2026-04-27T16:29:33Z</time></trkpt><trkpt lat="39.424889073453805" lon="8.509801471656843"><ele>87.0</ele><time>2026-04-27T16:29:34Z</time></trkpt><trkpt lat="39.42480987047417" lon="8.509741388103897"><ele>87.0</ele><time>2026-04-27T16:29:35Z</time></trkpt><trkpt lat="39.42472106422051" lon="8.509693408979864"><ele>87.0</ele><time>2026-04-27T16:29:36Z</time></trkpt><trkpt lat="39.42462706669069" lon="8.509663224979327"><ele>87.19999999999999</ele><time>2026-04-27T16:29:37Z</time></trkpt><trkpt lat="39.42453437931218" lon="8.509658835844542"><ele>87.4</ele><time>2026-04-27T16:29:38Z</time></trkpt><trkpt lat="39.42444000889871" lon="8.509639881500343"><ele>87.6</ele><time>2026-04-27T16:29:39Z</time></trkpt><trkpt lat="39.42436151472482" lon="8.509649448768878"><ele>87.80000000000001</ele><time>2026-04-27T16:29:40Z</time></trkpt><trkpt lat="39.424273737817344" lon="8.50973082085924"><ele>88.0</ele><time>2026-04-27T16:29:42Z</time></trkpt><trkpt lat="39.42424894098894" lon="8.509898693806154"><ele>88.0</ele><time>2026-04-27T16:29:44Z</time></trkpt><trkpt lat="39.4242549382357" lon="8.510005810747062"><ele>88.0</ele><time>2026-04-27T16:29:45Z</time></trkpt><trkpt lat="39.42426671762011" lon="8.510110773735947"><ele>88.0</ele><time>2026-04-27T16:29:46Z</time></trkpt><trkpt lat="39.42427926404921" lon="8.510217429155453"><ele>88.0</ele><time>2026-04-27T16:29:47Z</time></trkpt><trkpt lat="39.42429355058788" lon="8.510328014218839"><ele>88.0</ele><time>2026-04-27T16:29:48Z</time></trkpt><trkpt lat="39.42430892571701" lon="8.510426325576221"><ele>88.0</ele><time>2026-04-27T16:29:49.001Z</time></trkpt><trkpt lat="39.42432776707703" lon="8.510528825786542"><ele>88.60000000000001</ele><time>2026-04-27T16:29:50.001Z</time></trkpt><trkpt lat="39.424353834138394" lon="8.510642457054013"><ele>89.2</ele><time>2026-04-27T16:29:51.001Z</time></trkpt><trkpt lat="39.42437934795686" lon="8.510753676691948"><ele>89.8</ele><time>2026-04-27T16:29:52.001Z</time></trkpt><trkpt lat="39.424399171560076" lon="8.510867690069489"><ele>90.4</ele><time>2026-04-27T16:29:53.001Z</time></trkpt><trkpt lat="39.42441721127114" lon="8.510989501740978"><ele>91.0</ele><time>2026-04-27T16:29:54.001Z</time></trkpt><trkpt lat="39.42444466495775" lon="8.511113281850253"><ele>91.4</ele><time>2026-04-27T16:29:55.001Z</time></trkpt><trkpt lat="39.42444599508279" lon="8.511251753590969"><ele>91.8</ele><time>2026-04-27T16:29:56.001Z</time></trkpt><trkpt lat="39.42443710779992" lon="8.511392484387196"><ele>92.2</ele><time>2026-04-27T16:29:57.001Z</time></trkpt><trkpt lat="39.424406971337284" lon="8.511524784004113"><ele>92.60000000000001</ele><time>2026-04-27T16:29:58.001Z</time></trkpt><trkpt lat="39.42437047139523" lon="8.511653594959641"><ele>93.0</ele><time>2026-04-27T16:29:59.001Z</time></trkpt><trkpt lat="39.42431682671409" lon="8.511743201751385"><ele>93.0</ele><time>2026-04-27T16:30:00.001Z</time></trkpt><trkpt lat="39.42426601589419" lon="8.511805141735925"><ele>93.0</ele><time>2026-04-27T16:30:01.001Z</time></trkpt><trkpt lat="39.424196504012734" lon="8.511860058548168"><ele>93.0</ele><time>2026-04-27T16:30:02.001Z</time></trkpt><trkpt lat="39.42412625718017" lon="8.511909565797469"><ele>93.0</ele><time>2026-04-27T16:30:03.001Z</time></trkpt><trkpt lat="39.42405981519106" lon="8.511925095576638"><ele>93.0</ele><time>2026-04-27T16:30:04.001Z</time></trkpt><trkpt lat="39.42398829370351" lon="8.51194350145067"><ele>93.0</ele><time>2026-04-27T16:30:05.001Z</time></trkpt><trkpt lat="39.4239017012508" lon="8.511916475970175"><ele>93.0</ele><time>2026-04-27T16:30:06.001Z</time></trkpt><trkpt lat="39.42381445853601" lon="8.511898894788374"><ele>93.0</ele><time>2026-04-27T16:30:07.001Z</time></trkpt><trkpt lat="39.42371535233626" lon="8.511901018880785"><ele>93.0</ele><time>2026-04-27T16:30:08.001Z</time></trkpt><trkpt lat="39.42363297898098" lon="8.511910565982886"><ele>93.0</ele><time>2026-04-27T16:30:09.001Z</time></trkpt><trkpt lat="39.42356774788233" lon="8.511945335364121"><ele>93.0</ele><time>2026-04-27T16:30:10.001Z</time></trkpt><trkpt lat="39.423512858792265" lon="8.512013905237707"><ele>93.0</ele><time>2026-04-27T16:30:11.001Z</time></trkpt><trkpt lat="39.423442052048514" lon="8.512083790385022"><ele>94.0</ele><time>2026-04-27T16:30:12.001Z</time></trkpt><trkpt lat="39.423387107855454" lon="8.512173885749087"><ele>95.0</ele><time>2026-04-27T16:30:13.001Z</time></trkpt><trkpt lat="39.423334516712984" lon="8.512265226076082"><ele>96.0</ele><time>2026-04-27T16:30:14.001Z</time></trkpt><trkpt lat="39.42328657032082" lon="8.512387807377626"><ele>97.0</ele><time>2026-04-27T16:30:15.001Z</time></trkpt><trkpt lat="39.423213047092744" lon="8.512476996159599"><ele>98.0</ele><time>2026-04-27T16:30:16.001Z</time></trkpt><trkpt lat="39.42315076319647" lon="8.512575639478024"><ele>98.0</ele><time>2026-04-27T16:30:17.001Z</time></trkpt><trkpt lat="39.42308331227037" lon="8.512663958374612"><ele>98.0</ele><time>2026-04-27T16:30:18.001Z</time></trkpt><trkpt lat="39.42301953225506" lon="8.512780878451805"><ele>98.0</ele><time>2026-04-27T16:30:19.001Z</time></trkpt><trkpt lat="39.422973909717115" lon="8.512903918448329"><ele>98.0</ele><time>2026-04-27T16:30:20.001Z</time></trkpt><trkpt lat="39.42293811831115" lon="8.513007799930195"><ele>98.0</ele><time>2026-04-27T16:30:21.001Z</time></trkpt><trkpt lat="39.422891868452794" lon="8.513081697367229"><ele>97.25</ele><time>2026-04-27T16:30:22.001Z</time></trkpt><trkpt lat="39.42284714202827" lon="8.513164342584549"><ele>96.5</ele><time>2026-04-27T16:30:23.001Z</time></trkpt><trkpt lat="39.422770203485854" lon="8.5132764980132"><ele>95.75</ele><time>2026-04-27T16:30:24.001Z</time></trkpt><trkpt lat="39.422671086876186" lon="8.513375648828983"><ele>95.0</ele><time>2026-04-27T16:30:25.001Z</time></trkpt><trkpt lat="39.42255575367359" lon="8.51345803291434"><ele>95.0</ele><time>2026-04-27T16:30:26.001Z</time></trkpt><trkpt lat="39.42242994946244" lon="8.51351498787935"><ele>95.0</ele><time>2026-04-27T16:30:27.001Z</time></trkpt><trkpt lat="39.42235233004124" lon="8.513550128447974"><ele>95.0</ele><time>2026-04-27T16:30:28.001Z</time></trkpt><trkpt lat="39.42228290345935" lon="8.513587279859262"><ele>95.0</ele><time>2026-04-27T16:30:29.001Z</time></trkpt><trkpt lat="39.42221160420273" lon="8.513633279351733"><ele>95.0</ele><time>2026-04-27T16:30:31.001Z</time></trkpt><trkpt lat="39.422074848601426" lon="8.513577372462253"><ele>96.0</ele><time>2026-04-27T16:30:34.001Z</time></trkpt><trkpt lat="39.42196709864949" lon="8.513487089199163"><ele>97.0</ele><time>2026-04-27T16:30:36.001Z</time></trkpt><trkpt lat="39.421932040152114" lon="8.513405945480534"><ele>98.0</ele><time>2026-04-27T16:30:37.001Z</time></trkpt><trkpt lat="39.42192315850977" lon="8.513306237644953"><ele>99.0</ele><time>2026-04-27T16:30:38.001Z</time></trkpt><trkpt lat="39.42187759802569" lon="8.513168084700354"><ele>100.0</ele><time>2026-04-27T16:30:40.001Z</time></trkpt><trkpt lat="39.421808107672256" lon="8.513047574591727"><ele>100.0</ele><time>2026-04-27T16:30:42.001Z</time></trkpt><trkpt lat="39.42168012642079" lon="8.512951355198233"><ele>100.0</ele><time>2026-04-27T16:30:44.001Z</time></trkpt><trkpt lat="39.42159691605419" lon="8.512984508506419"><ele>100.0</ele><time>2026-04-27T16:30:45.001Z</time></trkpt><trkpt lat="39.42149431535697" lon="8.513055729335477"><ele>100.0</ele><time>2026-04-27T16:30:47.001Z</time></trkpt><trkpt lat="39.421425830063804" lon="8.513103269112774"><ele>100.0</ele><time>2026-04-27T16:30:48.001Z</time></trkpt><trkpt lat="39.421363646620186" lon="8.51314452586349"><ele>100.0</ele><time>2026-04-27T16:30:49.001Z</time></trkpt><trkpt lat="39.4213031895261" lon="8.513229034431953"><ele>100.0</ele><time>2026-04-27T16:30:50.001Z</time></trkpt><trkpt lat="39.42137820855381" lon="8.513611521049521"><ele>100.0</ele><time>2026-04-27T16:30:51.001Z</time></trkpt><trkpt lat="39.421315444588494" lon="8.513665967874188"><ele>102.33333333333334</ele><time>2026-04-27T16:30:52.001Z</time></trkpt><trkpt lat="39.42122471398424" lon="8.513673565337637"><ele>104.66666666666666</ele><time>2026-04-27T16:30:53.001Z</time></trkpt><trkpt lat="39.42096793639607" lon="8.513383383712851"><ele>107.0</ele><time>2026-04-27T16:30:54.002Z</time></trkpt><trkpt lat="39.42089076455472" lon="8.513411573508414"><ele>107.0</ele><time>2026-04-27T16:30:55.002Z</time></trkpt><trkpt lat="39.420802437138846" lon="8.513437076400304"><ele>106.99999999999999</ele><time>2026-04-27T16:30:56.002Z</time></trkpt><trkpt lat="39.42071313125353" lon="8.51347384483729"><ele>106.99999999999999</ele><time>2026-04-27T16:30:57.002Z</time></trkpt><trkpt lat="39.420622663658854" lon="8.513516245957998"><ele>107.0</ele><time>2026-04-27T16:30:58.002Z</time></trkpt><trkpt lat="39.420537082886305" lon="8.513560469758712"><ele>107.0</ele><time>2026-04-27T16:30:59.002Z</time></trkpt><trkpt lat="39.42044736349062" lon="8.51360536990349"><ele>107.33333333333333</ele><time>2026-04-27T16:31:00.002Z</time></trkpt><trkpt lat="39.420364587128354" lon="8.513650887804099"><ele>107.66666666666666</ele><time>2026-04-27T16:31:01.002Z</time></trkpt><trkpt lat="39.420276856614876" lon="8.513698531540832"><ele>108.0</ele><time>2026-04-27T16:31:02.002Z</time></trkpt><trkpt lat="39.42019954758821" lon="8.5137304165018"><ele>108.33333333333334</ele><time>2026-04-27T16:31:03.002Z</time></trkpt><trkpt lat="39.42012934289296" lon="8.513779830934284"><ele>108.66666666666667</ele><time>2026-04-27T16:31:04.002Z</time></trkpt><trkpt lat="39.42006494907232" lon="8.513828561805267"><ele>109.0</ele><time>2026-04-27T16:31:05.002Z</time></trkpt><trkpt lat="39.420016086170136" lon="8.513897823311433"><ele>112.6</ele><time>2026-04-27T16:31:06.002Z</time></trkpt><trkpt lat="39.41992524598647" lon="8.51400989367006"><ele>116.2</ele><time>2026-04-27T16:31:08.002Z</time></trkpt><trkpt lat="39.419878979916334" lon="8.514106506273471"><ele>119.79999999999998</ele><time>2026-04-27T16:31:09.002Z</time></trkpt><trkpt lat="39.41984124370699" lon="8.51420884864463"><ele>123.39999999999999</ele><time>2026-04-27T16:31:10.002Z</time></trkpt><trkpt lat="39.419786991677576" lon="8.514295372890924"><ele>127.0</ele><time>2026-04-27T16:31:11.002Z</time></trkpt><trkpt lat="39.41974172136901" lon="8.514368616144063"><ele>127.00000000000001</ele><time>2026-04-27T16:31:12.002Z</time></trkpt><trkpt lat="39.419696029680914" lon="8.51445254348784"><ele>127.0</ele><time>2026-04-27T16:31:13.002Z</time></trkpt><trkpt lat="39.41965296894044" lon="8.514529611114622"><ele>127.0</ele><time>2026-04-27T16:31:14.002Z</time></trkpt><trkpt lat="39.41960888451057" lon="8.514617475688327"><ele>127.0</ele><time>2026-04-27T16:31:15.002Z</time></trkpt><trkpt lat="39.41954587619183" lon="8.51469637421739"><ele>127.00000000000001</ele><time>2026-04-27T16:31:16.002Z</time></trkpt><trkpt lat="39.419512472744394" lon="8.514791596601336"><ele>127.0</ele><time>2026-04-27T16:31:17.002Z</time></trkpt><trkpt lat="39.419462529854556" lon="8.514880604256103"><ele>127.16666666666667</ele><time>2026-04-27T16:31:18.002Z</time></trkpt><trkpt lat="39.41940914458822" lon="8.51496582116413"><ele>127.33333333333334</ele><time>2026-04-27T16:31:19.002Z</time></trkpt><trkpt lat="39.419371824198315" lon="8.51503451839429"><ele>127.5</ele><time>2026-04-27T16:31:20.002Z</time></trkpt><trkpt lat="39.4192964174416" lon="8.515137675565072"><ele>127.66666666666666</ele><time>2026-04-27T16:31:22.002Z</time></trkpt><trkpt lat="39.419263890049834" lon="8.515224098627455"><ele>127.83333333333333</ele><time>2026-04-27T16:31:23.002Z</time></trkpt><trkpt lat="39.41921378273278" lon="8.515343262377932"><ele>128.0</ele><time>2026-04-27T16:31:25.002Z</time></trkpt><trkpt lat="39.41919310068072" lon="8.515425031091732"><ele>129.5</ele><time>2026-04-27T16:31:26.002Z</time></trkpt><trkpt lat="39.41918219429682" lon="8.515538820457024"><ele>131.0</ele><time>2026-04-27T16:31:27.002Z</time></trkpt><trkpt lat="39.419172426154525" lon="8.515663132994398"><ele>132.5</ele><time>2026-04-27T16:31:28.002Z</time></trkpt><trkpt lat="39.41919017553468" lon="8.515764401955822"><ele>134.0</ele><time>2026-04-27T16:31:29.002Z</time></trkpt><trkpt lat="39.41919190763225" lon="8.515864018419766"><ele>135.5</ele><time>2026-04-27T16:31:30.002Z</time></trkpt><trkpt lat="39.41917849956064" lon="8.515961259735379"><ele>137.0</ele><time>2026-04-27T16:31:31.002Z</time></trkpt><trkpt lat="39.419195303458665" lon="8.51606058419176"><ele>137.0</ele><time>2026-04-27T16:31:32.001Z</time></trkpt><trkpt lat="39.41917707665564" lon="8.516140652290712"><ele>137.0</ele><time>2026-04-27T16:31:33.001Z</time></trkpt><trkpt lat="39.41914303216219" lon="8.516231468372487"><ele>137.0</ele><time>2026-04-27T16:31:34.001Z</time></trkpt><trkpt lat="39.41908587723559" lon="8.516312318020857"><ele>137.0</ele><time>2026-04-27T16:31:35.001Z</time></trkpt><trkpt lat="39.41903082758377" lon="8.516388932633403"><ele>137.0</ele><time>2026-04-27T16:31:36.001Z</time></trkpt><trkpt lat="39.41899330643042" lon="8.51647918184876"><ele>137.0</ele><time>2026-04-27T16:31:37.001Z</time></trkpt><trkpt lat="39.41896921378064" lon="8.51658601261799"><ele>137.33333333333331</ele><time>2026-04-27T16:31:38.001Z</time></trkpt><trkpt lat="39.41895226014267" lon="8.516667697060816"><ele>137.66666666666666</ele><time>2026-04-27T16:31:39.001Z</time></trkpt><trkpt lat="39.41895010305916" lon="8.516771787883359"><ele>138.0</ele><time>2026-04-27T16:31:40.001Z</time></trkpt><trkpt lat="39.418954143876064" lon="8.516871966096907"><ele>138.33333333333334</ele><time>2026-04-27T16:31:41.001Z</time></trkpt><trkpt lat="39.418961904423924" lon="8.517000100796777"><ele>138.66666666666669</ele><time>2026-04-27T16:31:43.001Z</time></trkpt><trkpt lat="39.418941659932464" lon="8.51709185519787"><ele>139.0</ele><time>2026-04-27T16:31:45.001Z</time></trkpt><trkpt lat="39.41888454438947" lon="8.517197950238383"><ele>138.5</ele><time>2026-04-27T16:31:47.001Z</time></trkpt><trkpt lat="39.41878407596073" lon="8.51720993022081"><ele>138.0</ele><time>2026-04-27T16:31:49.001Z</time></trkpt><trkpt lat="39.41872163793991" lon="8.517224140907375"><ele>137.5</ele><time>2026-04-27T16:31:50.001Z</time></trkpt><trkpt lat="39.418652568456096" lon="8.517257526204139"><ele>137.0</ele><time>2026-04-27T16:31:51.001Z</time></trkpt><trkpt lat="39.418586140512744" lon="8.517285476588489"><ele>136.5</ele><time>2026-04-27T16:31:52.001Z</time></trkpt><trkpt lat="39.4185091019345" lon="8.517408858165092"><ele>136.0</ele><time>2026-04-27T16:31:54.001Z</time></trkpt><trkpt lat="39.41840929439265" lon="8.5175408048158"><ele>136.0</ele><time>2026-04-27T16:31:56.001Z</time></trkpt><trkpt lat="39.418367434262954" lon="8.517626493519685"><ele>136.0</ele><time>2026-04-27T16:31:57.001Z</time></trkpt><trkpt lat="39.41830101316429" lon="8.517774808608793"><ele>136.0</ele><time>2026-04-27T16:31:59.001Z</time></trkpt><trkpt lat="39.418295358010845" lon="8.517876214078678"><ele>136.0</ele><time>2026-04-27T16:32:00.001Z</time></trkpt><trkpt lat="39.41830459657926" lon="8.517991083076343"><ele>136.0</ele><time>2026-04-27T16:32:01.001Z</time></trkpt><trkpt lat="39.41833388603869" lon="8.51811059536724"><ele>136.0</ele><time>2026-04-27T16:32:02.001Z</time></trkpt><trkpt lat="39.418352736108986" lon="8.51823767444938"><ele>136.0</ele><time>2026-04-27T16:32:03.001Z</time></trkpt><trkpt lat="39.418359512194364" lon="8.518349224598003"><ele>136.0</ele><time>2026-04-27T16:32:04.001Z</time></trkpt><trkpt lat="39.41835128302993" lon="8.518457257693813"><ele>136.0</ele><time>2026-04-27T16:32:05.001Z</time></trkpt><trkpt lat="39.41833232056175" lon="8.518537460684868"><ele>136.0</ele><time>2026-04-27T16:32:06.001Z</time></trkpt><trkpt lat="39.418286184058395" lon="8.518654151117142"><ele>136.0</ele><time>2026-04-27T16:32:08.001Z</time></trkpt><trkpt lat="39.41829075724454" lon="8.518791656313397"><ele>136.14285714285714</ele><time>2026-04-27T16:32:10.001Z</time></trkpt><trkpt lat="39.41829432143711" lon="8.51887780917214"><ele>136.28571428571428</ele><time>2026-04-27T16:32:11.001Z</time></trkpt><trkpt lat="39.4182619463356" lon="8.518953921736886"><ele>136.42857142857144</ele><time>2026-04-27T16:32:13.001Z</time></trkpt><trkpt lat="39.418183025827666" lon="8.518964436785355"><ele>136.57142857142856</ele><time>2026-04-27T16:32:15.001Z</time></trkpt><trkpt lat="39.41812315266549" lon="8.518927497657542"><ele>136.71428571428572</ele><time>2026-04-27T16:32:16.001Z</time></trkpt><trkpt lat="39.41805923058777" lon="8.518899066783847"><ele>136.85714285714286</ele><time>2026-04-27T16:32:17.001Z</time></trkpt><trkpt lat="39.417970742512" lon="8.518878744673762"><ele>137.0</ele><time>2026-04-27T16:32:19.001Z</time></trkpt><trkpt lat="39.41792098945889" lon="8.518964535273307"><ele>135.5</ele><time>2026-04-27T16:32:21.001Z</time></trkpt><trkpt lat="39.41794595322843" lon="8.519058739374874"><ele>134.0</ele><time>2026-04-27T16:32:22.001Z</time></trkpt><trkpt lat="39.41795331470832" lon="8.51917310012488"><ele>132.5</ele><time>2026-04-27T16:32:24.001Z</time></trkpt><trkpt lat="39.417863637228486" lon="8.51917169145574"><ele>131.0</ele><time>2026-04-27T16:32:27.001Z</time></trkpt><trkpt lat="39.41779712231851" lon="8.519110832562788"><ele>129.5</ele><time>2026-04-27T16:32:28.001Z</time></trkpt><trkpt lat="39.417739202060154" lon="8.519049171755212"><ele>128.0</ele><time>2026-04-27T16:32:29.001Z</time></trkpt><trkpt lat="39.41767502502775" lon="8.51900094318571"><ele>127.99999999999999</ele><time>2026-04-27T16:32:30.001Z</time></trkpt><trkpt lat="39.41758754683337" lon="8.518958258646022"><ele>128.0</ele><time>2026-04-27T16:32:31.001Z</time></trkpt><trkpt lat="39.417508045004794" lon="8.518935674078984"><ele>128.0</ele><time>2026-04-27T16:32:32.001Z</time></trkpt><trkpt lat="39.4174369945802" lon="8.518926229250217"><ele>128.0</ele><time>2026-04-27T16:32:33.001Z</time></trkpt><trkpt lat="39.41737426479726" lon="8.518915519696664"><ele>127.99999999999999</ele><time>2026-04-27T16:32:34.001Z</time></trkpt><trkpt lat="39.41733307608055" lon="8.518982494328837"><ele>128.0</ele><time>2026-04-27T16:32:35.001Z</time></trkpt><trkpt lat="39.417222205370244" lon="8.519083997537974"><ele>126.80000000000001</ele><time>2026-04-27T16:32:37.001Z</time></trkpt><trkpt lat="39.41714518328259" lon="8.519150130557373"><ele>125.60000000000001</ele><time>2026-04-27T16:32:38.001Z</time></trkpt><trkpt lat="39.41706675990769" lon="8.519231734175149"><ele>124.39999999999999</ele><time>2026-04-27T16:32:39.001Z</time></trkpt><trkpt lat="39.416997193306884" lon="8.519303853093756"><ele>123.19999999999999</ele><time>2026-04-27T16:32:40.001Z</time></trkpt><trkpt lat="39.416927918208536" lon="8.519357074305447"><ele>122.0</ele><time>2026-04-27T16:32:41.001Z</time></trkpt><trkpt lat="39.416882696178256" lon="8.519469336805606"><ele>122.0</ele><time>2026-04-27T16:32:42.001Z</time></trkpt><trkpt lat="39.416823488466825" lon="8.519566388915655"><ele>121.99999999999999</ele><time>2026-04-27T16:32:43.001Z</time></trkpt><trkpt lat="39.416783253659816" lon="8.51970453860808"><ele>121.99999999999999</ele><time>2026-04-27T16:32:44.001Z</time></trkpt><trkpt lat="39.41674685281133" lon="8.519816881005406"><ele>122.0</ele><time>2026-04-27T16:32:45.001Z</time></trkpt><trkpt lat="39.41670809749561" lon="8.519917229269094"><ele>122.0</ele><time>2026-04-27T16:32:46.001Z</time></trkpt><trkpt lat="39.416673905527446" lon="8.52003297004502"><ele>122.83333333333333</ele><time>2026-04-27T16:32:47.001Z</time></trkpt><trkpt lat="39.41664306779153" lon="8.520136348160511"><ele>123.66666666666666</ele><time>2026-04-27T16:32:48.001Z</time></trkpt><trkpt lat="39.41659873127032" lon="8.52021655064326"><ele>124.5</ele><time>2026-04-27T16:32:49.001Z</time></trkpt><trkpt lat="39.416564776492706" lon="8.520314053011026"><ele>125.33333333333334</ele><time>2026-04-27T16:32:50.001Z</time></trkpt><trkpt lat="39.41653195376598" lon="8.520406254530362"><ele>126.16666666666667</ele><time>2026-04-27T16:32:51.001Z</time></trkpt><trkpt lat="39.41649892886318" lon="8.520495311962518"><ele>127.0</ele><time>2026-04-27T16:32:52.001Z</time></trkpt><trkpt lat="39.41645857000889" lon="8.52057493540377"><ele>127.14285714285714</ele><time>2026-04-27T16:32:53.001Z</time></trkpt><trkpt lat="39.41640722981821" lon="8.520644423175984"><ele>127.28571428571428</ele><time>2026-04-27T16:32:54Z</time></trkpt><trkpt lat="39.416346912946736" lon="8.520708755005751"><ele>127.42857142857142</ele><time>2026-04-27T16:32:55.001Z</time></trkpt><trkpt lat="39.41630654825677" lon="8.520774748916143"><ele>127.57142857142857</ele><time>2026-04-27T16:32:56.001Z</time></trkpt><trkpt lat="39.416248714963466" lon="8.520821108445762"><ele>127.7142857142857</ele><time>2026-04-27T16:32:57.001Z</time></trkpt><trkpt lat="39.41619467932432" lon="8.520899397016874"><ele>127.85714285714285</ele><time>2026-04-27T16:32:58.001Z</time></trkpt><trkpt lat="39.41614579410421" lon="8.520973557722593"><ele>128.0</ele><time>2026-04-27T16:32:59.001Z</time></trkpt><trkpt lat="39.4160929529112" lon="8.521051038980895"><ele>128.0</ele><time>2026-04-27T16:33:00.001Z</time></trkpt><trkpt lat="39.416029326107015" lon="8.521112592208924"><ele>128.0</ele><time>2026-04-27T16:33:01.001Z</time></trkpt><trkpt lat="39.415953190460144" lon="8.5211723808475"><ele>128.0</ele><time>2026-04-27T16:33:02.001Z</time></trkpt><trkpt lat="39.41587528803448" lon="8.521225172526599"><ele>128.0</ele><time>2026-04-27T16:33:03.001Z</time></trkpt><trkpt lat="39.415784517262004" lon="8.52127854291716"><ele>128.0</ele><time>2026-04-27T16:33:04.001Z</time></trkpt><trkpt lat="39.415684121293886" lon="8.52131802494539"><ele>129.20000000000002</ele><time>2026-04-27T16:33:05.001Z</time></trkpt><trkpt lat="39.41560015244712" lon="8.521352328167685"><ele>130.4</ele><time>2026-04-27T16:33:06.001Z</time></trkpt><trkpt lat="39.415525035483626" lon="8.521436494490185"><ele>131.60000000000002</ele><time>2026-04-27T16:33:08.001Z</time></trkpt><trkpt lat="39.41548339172658" lon="8.521566628592524"><ele>132.8</ele><time>2026-04-27T16:33:10.001Z</time></trkpt><trkpt lat="39.41546282956486" lon="8.521675745349278"><ele>134.0</ele><time>2026-04-27T16:33:11.001Z</time></trkpt><trkpt lat="39.41543499512563" lon="8.521785193615266"><ele>134.0</ele><time>2026-04-27T16:33:12.001Z</time></trkpt><trkpt lat="39.41541463064484" lon="8.521912605965392"><ele>134.0</ele><time>2026-04-27T16:33:13.001Z</time></trkpt><trkpt lat="39.415385801606455" lon="8.52204199921327"><ele>134.0</ele><time>2026-04-27T16:33:14.001Z</time></trkpt><trkpt lat="39.4153670505131" lon="8.522168711803655"><ele>134.0</ele><time>2026-04-27T16:33:15.001Z</time></trkpt><trkpt lat="39.415368409825504" lon="8.522303187533163"><ele>134.0</ele><time>2026-04-27T16:33:16.001Z</time></trkpt><trkpt lat="39.415368509151556" lon="8.522446584742008"><ele>135.8</ele><time>2026-04-27T16:33:17.001Z</time></trkpt><trkpt lat="39.41535785361906" lon="8.522576769835611"><ele>137.60000000000002</ele><time>2026-04-27T16:33:18.001Z</time></trkpt><trkpt lat="39.41533539417825" lon="8.52271263844936"><ele>139.4</ele><time>2026-04-27T16:33:19.001Z</time></trkpt><trkpt lat="39.41531904558927" lon="8.522836456360348"><ele>141.20000000000002</ele><time>2026-04-27T16:33:20.001Z</time></trkpt><trkpt lat="39.41530963459385" lon="8.522946809799265"><ele>143.0</ele><time>2026-04-27T16:33:21.001Z</time></trkpt><trkpt lat="39.415298488111155" lon="8.52303069329886"><ele>143.0</ele><time>2026-04-27T16:33:22.001Z</time></trkpt><trkpt lat="39.41527193688212" lon="8.523115339540855"><ele>143.0</ele><time>2026-04-27T16:33:24.001Z</time></trkpt><trkpt lat="39.415195887616356" lon="8.523127212341874"><ele>143.0</ele><time>2026-04-27T16:33:26.001Z</time></trkpt><trkpt lat="39.41514060017305" lon="8.523037862337118"><ele>143.0</ele><time>2026-04-27T16:33:28.001Z</time></trkpt><trkpt lat="39.41515532121333" lon="8.52294985287168"><ele>143.0</ele><time>2026-04-27T16:33:29.001Z</time></trkpt><trkpt lat="39.41517686646347" lon="8.52286290572174"><ele>143.0</ele><time>2026-04-27T16:33:30.001Z</time></trkpt><trkpt lat="39.41522216499319" lon="8.522713999543479"><ele>143.16666666666666</ele><time>2026-04-27T16:33:32.001Z</time></trkpt><trkpt lat="39.415216332582474" lon="8.522563028802612"><ele>143.33333333333331</ele><time>2026-04-27T16:33:34.001Z</time></trkpt><trkpt lat="39.41522382994062" lon="8.522478030562533"><ele>143.5</ele><time>2026-04-27T16:33:35.001Z</time></trkpt><trkpt lat="39.41522638264321" lon="8.522383656177528"><ele>143.66666666666666</ele><time>2026-04-27T16:33:36.001Z</time></trkpt><trkpt lat="39.41522435567607" lon="8.522287768118659"><ele>143.83333333333334</ele><time>2026-04-27T16:33:37.001Z</time></trkpt><trkpt lat="39.4152094890771" lon="8.522192341521716"><ele>144.0</ele><time>2026-04-27T16:33:38Z</time></trkpt><trkpt lat="39.41520678441568" lon="8.5220733766568"><ele>142.33333333333334</ele><time>2026-04-27T16:33:39Z</time></trkpt><trkpt lat="39.415212483483934" lon="8.52196205091181"><ele>140.66666666666666</ele><time>2026-04-27T16:33:40Z</time></trkpt><trkpt lat="39.41520535208093" lon="8.521863315437056"><ele>139.0</ele><time>2026-04-27T16:33:41Z</time></trkpt><trkpt lat="39.41512151645883" lon="8.521781849079098"><ele>137.33333333333331</ele><time>2026-04-27T16:33:43Z</time></trkpt><trkpt lat="39.415056624944654" lon="8.521759326419062"><ele>135.66666666666666</ele><time>2026-04-27T16:33:44Z</time></trkpt><trkpt lat="39.41498279451348" lon="8.521762596631515"><ele>134.0</ele><time>2026-04-27T16:33:45Z</time></trkpt><trkpt lat="39.41490605041233" lon="8.521784988208884"><ele>134.0</ele><time>2026-04-27T16:33:46Z</time></trkpt><trkpt lat="39.4148218414622" lon="8.521794183393817"><ele>134.0</ele><time>2026-04-27T16:33:47Z</time></trkpt><trkpt lat="39.414727565263185" lon="8.52179939279063"><ele>134.0</ele><time>2026-04-27T16:33:48Z</time></trkpt><trkpt lat="39.41464904981122" lon="8.521792077233632"><ele>134.0</ele><time>2026-04-27T16:33:49Z</time></trkpt><trkpt lat="39.41457504595568" lon="8.52180926220922"><ele>134.0</ele><time>2026-04-27T16:33:50Z</time></trkpt><trkpt lat="39.41449089240606" lon="8.521881931994958"><ele>134.0</ele><time>2026-04-27T16:33:52Z</time></trkpt><trkpt lat="39.41440804015801" lon="8.52197601895508"><ele>136.6</ele><time>2026-04-27T16:33:54Z</time></trkpt><trkpt lat="39.41435326102904" lon="8.522020410537051"><ele>139.2</ele><time>2026-04-27T16:33:55Z</time></trkpt><trkpt lat="39.41426168144916" lon="8.522036121829279"><ele>141.79999999999998</ele><time>2026-04-27T16:33:57Z</time></trkpt><trkpt lat="39.4141923575059" lon="8.521991628763473"><ele>144.4</ele><time>2026-04-27T16:33:59Z</time></trkpt><trkpt lat="39.414169217109794" lon="8.521876384461168"><ele>147.0</ele><time>2026-04-27T16:34:01Z</time></trkpt><trkpt lat="39.414181199206254" lon="8.521710276062361"><ele>147.0</ele><time>2026-04-27T16:34:03Z</time></trkpt><trkpt lat="39.41419912838082" lon="8.521632033402996"><ele>147.0</ele><time>2026-04-27T16:34:04Z</time></trkpt><trkpt lat="39.41416051256177" lon="8.521496888399723"><ele>147.0</ele><time>2026-04-27T16:34:06Z</time></trkpt><trkpt lat="39.4141053153096" lon="8.521447334598543"><ele>147.0</ele><time>2026-04-27T16:34:07Z</time></trkpt><trkpt lat="39.41405127020458" lon="8.521405448098493"><ele>147.0</ele><time>2026-04-27T16:34:08Z</time></trkpt><trkpt lat="39.414017952668786" lon="8.521336010934563"><ele>147.0</ele><time>2026-04-27T16:34:09Z</time></trkpt><trkpt lat="39.41399611431515" lon="8.521254177374455"><ele>147.0</ele><time>2026-04-27T16:34:10Z</time></trkpt><trkpt lat="39.41397065909447" lon="8.5211583123586"><ele>146.83333333333334</ele><time>2026-04-27T16:34:11Z</time></trkpt><trkpt lat="39.413958418893394" lon="8.521072275292692"><ele>146.66666666666666</ele><time>2026-04-27T16:34:12Z</time></trkpt><trkpt lat="39.41395753333041" lon="8.52096779121194"><ele>146.5</ele><time>2026-04-27T16:34:13Z</time></trkpt><trkpt lat="39.41396643222143" lon="8.520855187818709"><ele>146.33333333333331</ele><time>2026-04-27T16:34:14Z</time></trkpt><trkpt lat="39.41398306688722" lon="8.52073600982958"><ele>146.16666666666666</ele><time>2026-04-27T16:34:15Z</time></trkpt><trkpt lat="39.41395847115219" lon="8.520602611767249"><ele>146.0</ele><time>2026-04-27T16:34:17Z</time></trkpt><trkpt lat="39.41384205994026" lon="8.520521895805025"><ele>146.4</ele><time>2026-04-27T16:34:19Z</time></trkpt><trkpt lat="39.41375633551834" lon="8.520463121552252"><ele>146.8</ele><time>2026-04-27T16:34:20Z</time></trkpt><trkpt lat="39.41367904511743" lon="8.52040035771579"><ele>147.20000000000002</ele><time>2026-04-27T16:34:21Z</time></trkpt><trkpt lat="39.41358529149897" lon="8.520394926966214"><ele>147.6</ele><time>2026-04-27T16:34:23Z</time></trkpt><trkpt lat="39.413520331534805" lon="8.520487819149368"><ele>148.0</ele><time>2026-04-27T16:34:25Z</time></trkpt><trkpt lat="39.41346058902919" lon="8.52056059973794"><ele>150.60000000000002</ele><time>2026-04-27T16:34:26Z</time></trkpt><trkpt lat="39.413379096261835" lon="8.520640270977813"><ele>153.20000000000002</ele><time>2026-04-27T16:34:27Z</time></trkpt><trkpt lat="39.41329879104527" lon="8.52070810403376"><ele>155.8</ele><time>2026-04-27T16:34:28Z</time></trkpt><trkpt lat="39.413227813687186" lon="8.520772374709436"><ele>158.4</ele><time>2026-04-27T16:34:29Z</time></trkpt><trkpt lat="39.413148727327965" lon="8.520853547440202"><ele>161.0</ele><time>2026-04-27T16:34:30Z</time></trkpt><trkpt lat="39.41305565051943" lon="8.520935484238178"><ele>162.60000000000002</ele><time>2026-04-27T16:34:31Z</time></trkpt><trkpt lat="39.41296930739535" lon="8.52101714556382"><ele>164.2</ele><time>2026-04-27T16:34:32Z</time></trkpt><trkpt lat="39.41288376182453" lon="8.521113468264879"><ele>165.8</ele><time>2026-04-27T16:34:33Z</time></trkpt><trkpt lat="39.412802992388215" lon="8.52121906856586"><ele>167.39999999999998</ele><time>2026-04-27T16:34:34Z</time></trkpt><trkpt lat="39.41272538240739" lon="8.52131331274"><ele>169.0</ele><time>2026-04-27T16:34:35Z</time></trkpt><trkpt lat="39.41263247436232" lon="8.521398878456377"><ele>169.0</ele><time>2026-04-27T16:34:36Z</time></trkpt><trkpt lat="39.412548318733435" lon="8.521482573968393"><ele>169.0</ele><time>2026-04-27T16:34:37Z</time></trkpt><trkpt lat="39.41247379089853" lon="8.521565379246795"><ele>169.0</ele><time>2026-04-27T16:34:38Z</time></trkpt><trkpt lat="39.41238645747755" lon="8.52161310598165"><ele>169.0</ele><time>2026-04-27T16:34:39Z</time></trkpt><trkpt lat="39.41231571526668" lon="8.521680969722953"><ele>169.0</ele><time>2026-04-27T16:34:40Z</time></trkpt><trkpt lat="39.41218248273719" lon="8.521733051364121"><ele>167.2</ele><time>2026-04-27T16:34:42Z</time></trkpt><trkpt lat="39.41210961640424" lon="8.521756477664097"><ele>165.39999999999998</ele><time>2026-04-27T16:34:43Z</time></trkpt><trkpt lat="39.41203548180612" lon="8.521800163232783"><ele>163.6</ele><time>2026-04-27T16:34:44Z</time></trkpt><trkpt lat="39.411940629661885" lon="8.52189400333501"><ele>161.8</ele><time>2026-04-27T16:34:46Z</time></trkpt><trkpt lat="39.411840630451856" lon="8.5219379895687"><ele>160.0</ele><time>2026-04-27T16:34:48Z</time></trkpt><trkpt lat="39.41175318099891" lon="8.52183661267777"><ele>160.0</ele><time>2026-04-27T16:34:49Z</time></trkpt><trkpt lat="39.41168213557713" lon="8.521848861658897"><ele>160.0</ele><time>2026-04-27T16:34:50Z</time></trkpt><trkpt lat="39.411609203993905" lon="8.52185874021788"><ele>160.0</ele><time>2026-04-27T16:34:51Z</time></trkpt><trkpt lat="39.4115388405973" lon="8.521880053546319"><ele>160.0</ele><time>2026-04-27T16:34:52Z</time></trkpt><trkpt lat="39.41146833917772" lon="8.521871477501367"><ele>160.0</ele><time>2026-04-27T16:34:53Z</time></trkpt><trkpt lat="39.41140681951853" lon="8.521924729750982"><ele>160.0</ele><time>2026-04-27T16:34:54Z</time></trkpt><trkpt lat="39.41137420875143" lon="8.52201471963956"><ele>160.0</ele><time>2026-04-27T16:34:55Z</time></trkpt><trkpt lat="39.411360119001735" lon="8.522133277471337"><ele>162.5</ele><time>2026-04-27T16:34:56Z</time></trkpt><trkpt lat="39.411379061896355" lon="8.522247781507907"><ele>165.0</ele><time>2026-04-27T16:34:57Z</time></trkpt><trkpt lat="39.411403741165316" lon="8.522349401741955"><ele>167.5</ele><time>2026-04-27T16:34:58Z</time></trkpt><trkpt lat="39.411422282473886" lon="8.522432418194631"><ele>170.0</ele><time>2026-04-27T16:34:59Z</time></trkpt><trkpt lat="39.411428674198255" lon="8.522522078671328"><ele>172.5</ele><time>2026-04-27T16:35:00Z</time></trkpt><trkpt lat="39.41142635598534" lon="8.522629961296884"><ele>175.0</ele><time>2026-04-27T16:35:01Z</time></trkpt><trkpt lat="39.41143205544952" lon="8.52274309143599"><ele>175.0</ele><time>2026-04-27T16:35:02Z</time></trkpt><trkpt lat="39.41145525113178" lon="8.522854004193176"><ele>175.0</ele><time>2026-04-27T16:35:03Z</time></trkpt><trkpt lat="39.411511875556144" lon="8.522971840847235"><ele>175.0</ele><time>2026-04-27T16:35:04Z</time></trkpt><trkpt lat="39.411608228976284" lon="8.523045295668103"><ele>175.0</ele><time>2026-04-27T16:35:05Z</time></trkpt><trkpt lat="39.411687218660894" lon="8.523099795697014"><ele>175.0</ele><time>2026-04-27T16:35:06Z</time></trkpt><trkpt lat="39.41176183344154" lon="8.52316119148923"><ele>175.5</ele><time>2026-04-27T16:35:07Z</time></trkpt><trkpt lat="39.41182574690009" lon="8.523233836689098"><ele>176.0</ele><time>2026-04-27T16:35:08Z</time></trkpt><trkpt lat="39.41185755524378" lon="8.523315850265487"><ele>176.5</ele><time>2026-04-27T16:35:09Z</time></trkpt><trkpt lat="39.41188175417235" lon="8.523468580612011"><ele>177.0</ele><time>2026-04-27T16:35:11.001Z</time></trkpt><trkpt lat="39.4118817582509" lon="8.52355964208023"><ele>177.5</ele><time>2026-04-27T16:35:12.001Z</time></trkpt><trkpt lat="39.411876152432896" lon="8.523667440363948"><ele>178.0</ele><time>2026-04-27T16:35:13.001Z</time></trkpt><trkpt lat="39.41185041393746" lon="8.52377435010328"><ele>179.4</ele><time>2026-04-27T16:35:14.001Z</time></trkpt><trkpt lat="39.41179372861514" lon="8.523856697570304"><ele>180.8</ele><time>2026-04-27T16:35:15.001Z</time></trkpt><trkpt lat="39.411705586083244" lon="8.523969620482323"><ele>182.2</ele><time>2026-04-27T16:35:17.001Z</time></trkpt><trkpt lat="39.41162526896721" lon="8.524019168459855"><ele>183.6</ele><time>2026-04-27T16:35:18.001Z</time></trkpt><trkpt lat="39.411525573208" lon="8.52403652329712"><ele>185.0</ele><time>2026-04-27T16:35:19.001Z</time></trkpt><trkpt lat="39.41145075402121" lon="8.524096931340475"><ele>185.0</ele><time>2026-04-27T16:35:20.001Z</time></trkpt><trkpt lat="39.41138899520395" lon="8.524131487747871"><ele>185.0</ele><time>2026-04-27T16:35:21.001Z</time></trkpt><trkpt lat="39.411357094753946" lon="8.524220734638861"><ele>185.0</ele><time>2026-04-27T16:35:22.001Z</time></trkpt><trkpt lat="39.41138781642277" lon="8.524327862997326"><ele>185.0</ele><time>2026-04-27T16:35:23.001Z</time></trkpt><trkpt lat="39.41147801900788" lon="8.524389627597765"><ele>185.0</ele><time>2026-04-27T16:35:24.001Z</time></trkpt><trkpt lat="39.41152154486887" lon="8.524457514675841"><ele>185.0</ele><time>2026-04-27T16:35:25.001Z</time></trkpt><trkpt lat="39.41155017963338" lon="8.52462624062217"><ele>186.8</ele><time>2026-04-27T16:35:27.001Z</time></trkpt><trkpt lat="39.411553704437004" lon="8.52471821340978"><ele>188.6</ele><time>2026-04-27T16:35:28.001Z</time></trkpt><trkpt lat="39.41153945273455" lon="8.524908040195836"><ele>190.39999999999998</ele><time>2026-04-27T16:35:30.001Z</time></trkpt><trkpt lat="39.41152433695425" lon="8.525034816123519"><ele>192.2</ele><time>2026-04-27T16:35:31.001Z</time></trkpt><trkpt lat="39.41152955138174" lon="8.525149635399389"><ele>194.0</ele><time>2026-04-27T16:35:32.001Z</time></trkpt><trkpt lat="39.411520063670885" lon="8.525233133919288"><ele>194.00000000000003</ele><time>2026-04-27T16:35:33.001Z</time></trkpt><trkpt lat="39.41142876739822" lon="8.525262154211722"><ele>194.0</ele><time>2026-04-27T16:35:36.001Z</time></trkpt><trkpt lat="39.41136734188456" lon="8.52522474566934"><ele>194.0</ele><time>2026-04-27T16:35:37.001Z</time></trkpt><trkpt lat="39.41129993781505" lon="8.525190423960883"><ele>194.0</ele><time>2026-04-27T16:35:38.001Z</time></trkpt><trkpt lat="39.41118602199616" lon="8.525213458718621"><ele>194.00000000000003</ele><time>2026-04-27T16:35:40.001Z</time></trkpt><trkpt lat="39.41113638589028" lon="8.525289446547095"><ele>194.0</ele><time>2026-04-27T16:35:41.001Z</time></trkpt><trkpt lat="39.411072151009705" lon="8.52535411064722"><ele>193.50000000000003</ele><time>2026-04-27T16:35:42.001Z</time></trkpt><trkpt lat="39.41098355393246" lon="8.525398271896627"><ele>193.0</ele><time>2026-04-27T16:35:43Z</time></trkpt><trkpt lat="39.410907009227536" lon="8.525459636719871"><ele>192.5</ele><time>2026-04-27T16:35:44Z</time></trkpt><trkpt lat="39.41083787316085" lon="8.52557084386627"><ele>192.0</ele><time>2026-04-27T16:35:46Z</time></trkpt><trkpt lat="39.41084146747277" lon="8.525658607692664"><ele>191.5</ele><time>2026-04-27T16:35:47Z</time></trkpt><trkpt lat="39.41083038667982" lon="8.525742355475765"><ele>191.0</ele><time>2026-04-27T16:35:48Z</time></trkpt><trkpt lat="39.41079301366846" lon="8.525837609172871"><ele>191.0</ele><time>2026-04-27T16:35:49Z</time></trkpt><trkpt lat="39.410761784828" lon="8.525945181007147"><ele>191.0</ele><time>2026-04-27T16:35:50Z</time></trkpt><trkpt lat="39.41072476142011" lon="8.526053373345361"><ele>191.0</ele><time>2026-04-27T16:35:51Z</time></trkpt><trkpt lat="39.410703215014095" lon="8.52617159812117"><ele>191.0</ele><time>2026-04-27T16:35:52Z</time></trkpt><trkpt lat="39.410668564006755" lon="8.526275532159787"><ele>191.0</ele><time>2026-04-27T16:35:53Z</time></trkpt><trkpt lat="39.41063881313459" lon="8.526374518177855"><ele>191.0</ele><time>2026-04-27T16:35:54Z</time></trkpt><trkpt lat="39.410626886582" lon="8.526485159108725"><ele>192.2857142857143</ele><time>2026-04-27T16:35:55Z</time></trkpt><trkpt lat="39.41062496804581" lon="8.526590327593576"><ele>193.57142857142856</ele><time>2026-04-27T16:35:56Z</time></trkpt><trkpt lat="39.410615712803164" lon="8.526686768664243"><ele>194.85714285714286</ele><time>2026-04-27T16:35:57Z</time></trkpt><trkpt lat="39.41058971063679" lon="8.526764599029168"><ele>196.14285714285717</ele><time>2026-04-27T16:35:58Z</time></trkpt><trkpt lat="39.41057139215853" lon="8.526852006592256"><ele>197.42857142857144</ele><time>2026-04-27T16:35:59Z</time></trkpt><trkpt lat="39.410524405421356" lon="8.526917093908256"><ele>198.71428571428572</ele><time>2026-04-27T16:36:00Z</time></trkpt><trkpt lat="39.41044805915519" lon="8.526934333969228"><ele>200.0</ele><time>2026-04-27T16:36:01Z</time></trkpt><trkpt lat="39.41037818402152" lon="8.526959516328054"><ele>200.2</ele><time>2026-04-27T16:36:02Z</time></trkpt><trkpt lat="39.41028339322494" lon="8.527012918258277"><ele>200.4</ele><time>2026-04-27T16:36:04Z</time></trkpt><trkpt lat="39.41023406885531" lon="8.527083326539737"><ele>200.60000000000002</ele><time>2026-04-27T16:36:06Z</time></trkpt><trkpt lat="39.41020387223114" lon="8.527262305418617"><ele>200.8</ele><time>2026-04-27T16:36:08Z</time></trkpt><trkpt lat="39.41018436502916" lon="8.527366489022683"><ele>201.0</ele><time>2026-04-27T16:36:09Z</time></trkpt><trkpt lat="39.410157266783536" lon="8.52746193661888"><ele>201.0</ele><time>2026-04-27T16:36:10Z</time></trkpt><trkpt lat="39.41011692959689" lon="8.527547036720902"><ele>201.0</ele><time>2026-04-27T16:36:11Z</time></trkpt><trkpt lat="39.41006078809231" lon="8.527628631443157"><ele>201.0</ele><time>2026-04-27T16:36:12Z</time></trkpt><trkpt lat="39.40999874566821" lon="8.527703034601595"><ele>201.0</ele><time>2026-04-27T16:36:13Z</time></trkpt><trkpt lat="39.40991992032344" lon="8.527758063332113"><ele>201.0</ele><time>2026-04-27T16:36:14Z</time></trkpt><trkpt lat="39.40984968245444" lon="8.527822169642057"><ele>201.0</ele><time>2026-04-27T16:36:15Z</time></trkpt><trkpt lat="39.40978488274656" lon="8.527893422027281"><ele>202.33333333333334</ele><time>2026-04-27T16:36:16Z</time></trkpt><trkpt lat="39.409713121369606" lon="8.527925739813165"><ele>203.66666666666669</ele><time>2026-04-27T16:36:17Z</time></trkpt><trkpt lat="39.409638873968476" lon="8.5279537941305"><ele>205.0</ele><time>2026-04-27T16:36:18Z</time></trkpt><trkpt lat="39.40957177825053" lon="8.527991378933626"><ele>206.33333333333334</ele><time>2026-04-27T16:36:19Z</time></trkpt><trkpt lat="39.409512113306725" lon="8.528036683088718"><ele>207.66666666666669</ele><time>2026-04-27T16:36:20Z</time></trkpt><trkpt lat="39.40944619586905" lon="8.528105276644702"><ele>209.0</ele><time>2026-04-27T16:36:21Z</time></trkpt><trkpt lat="39.409390285523344" lon="8.528191046978622"><ele>209.83333333333334</ele><time>2026-04-27T16:36:22Z</time></trkpt><trkpt lat="39.40933393042094" lon="8.528278964347551"><ele>210.66666666666669</ele><time>2026-04-27T16:36:23Z</time></trkpt><trkpt lat="39.409283464894564" lon="8.52836843440195"><ele>211.5</ele><time>2026-04-27T16:36:24Z</time></trkpt><trkpt lat="39.409239487727945" lon="8.528453553962517"><ele>212.33333333333331</ele><time>2026-04-27T16:36:25Z</time></trkpt><trkpt lat="39.40919905380355" lon="8.528541898440949"><ele>213.16666666666666</ele><time>2026-04-27T16:36:26Z</time></trkpt><trkpt lat="39.40915169108412" lon="8.528628251081209"><ele>214.0</ele><time>2026-04-27T16:36:27Z</time></trkpt><trkpt lat="39.409101248989934" lon="8.528692357326053"><ele>214.99999999999997</ele><time>2026-04-27T16:36:28Z</time></trkpt><trkpt lat="39.40903832553362" lon="8.528753900170049"><ele>216.0</ele><time>2026-04-27T16:36:29Z</time></trkpt><trkpt lat="39.408995919775826" lon="8.52881456469995"><ele>217.0</ele><time>2026-04-27T16:36:30Z</time></trkpt><trkpt lat="39.40894956470485" lon="8.528898776470285"><ele>218.0</ele><time>2026-04-27T16:36:31Z</time></trkpt><trkpt lat="39.40892736527505" lon="8.529000971216522"><ele>218.99999999999997</ele><time>2026-04-27T16:36:32Z</time></trkpt><trkpt lat="39.4088927071579" lon="8.529119151613559"><ele>220.0</ele><time>2026-04-27T16:36:33Z</time></trkpt><trkpt lat="39.40887960057054" lon="8.529246703937595"><ele>220.0</ele><time>2026-04-27T16:36:34Z</time></trkpt><trkpt lat="39.408869691798756" lon="8.529390118834792"><ele>220.0</ele><time>2026-04-27T16:36:35Z</time></trkpt><trkpt lat="39.4088628658562" lon="8.529530942819852"><ele>220.0</ele><time>2026-04-27T16:36:36Z</time></trkpt><trkpt lat="39.4088415894944" lon="8.529658150038461"><ele>220.0</ele><time>2026-04-27T16:36:37Z</time></trkpt><trkpt lat="39.40880546157407" lon="8.52976471730581"><ele>220.0</ele><time>2026-04-27T16:36:38Z</time></trkpt><trkpt lat="39.40873922359481" lon="8.529860788426742"><ele>222.8</ele><time>2026-04-27T16:36:39Z</time></trkpt><trkpt lat="39.40866133139207" lon="8.52993834216696"><ele>225.6</ele><time>2026-04-27T16:36:40Z</time></trkpt><trkpt lat="39.40859325152085" lon="8.53000963099207"><ele>228.39999999999998</ele><time>2026-04-27T16:36:41Z</time></trkpt><trkpt lat="39.4085340727459" lon="8.530083431953331"><ele>231.2</ele><time>2026-04-27T16:36:42Z</time></trkpt><trkpt lat="39.40848038277826" lon="8.53017207193685"><ele>234.0</ele><time>2026-04-27T16:36:43Z</time></trkpt><trkpt lat="39.40843194435903" lon="8.530279694441889"><ele>235.0</ele><time>2026-04-27T16:36:44Z</time></trkpt><trkpt lat="39.40837949275925" lon="8.530393837743134"><ele>235.99999999999997</ele><time>2026-04-27T16:36:45Z</time></trkpt><trkpt lat="39.40834023594147" lon="8.530509328849773"><ele>236.99999999999997</ele><time>2026-04-27T16:36:46Z</time></trkpt><trkpt lat="39.40828040816014" lon="8.530649968193478"><ele>238.0</ele><time>2026-04-27T16:36:47Z</time></trkpt><trkpt lat="39.408206005716806" lon="8.530780222583948"><ele>239.0</ele><time>2026-04-27T16:36:48Z</time></trkpt><trkpt lat="39.408151385522736" lon="8.530892653794291"><ele>239.00000000000003</ele><time>2026-04-27T16:36:49Z</time></trkpt><trkpt lat="39.408112781336" lon="8.531012040438586"><ele>239.0</ele><time>2026-04-27T16:36:50Z</time></trkpt><trkpt lat="39.408106178112014" lon="8.531129159603019"><ele>239.0</ele><time>2026-04-27T16:36:51Z</time></trkpt><trkpt lat="39.40810120036811" lon="8.531238228907679"><ele>239.0</ele><time>2026-04-27T16:36:52Z</time></trkpt><trkpt lat="39.40809096837586" lon="8.531332758535942"><ele>239.00000000000003</ele><time>2026-04-27T16:36:53Z</time></trkpt><trkpt lat="39.40811148158557" lon="8.531434952630073"><ele>239.0</ele><time>2026-04-27T16:36:54Z</time></trkpt><trkpt lat="39.40815061883383" lon="8.531517984578608"><ele>240.16666666666669</ele><time>2026-04-27T16:36:55Z</time></trkpt><trkpt lat="39.408226542233976" lon="8.531584778269234"><ele>241.33333333333334</ele><time>2026-04-27T16:36:56Z</time></trkpt><trkpt lat="39.408305081399156" lon="8.53160532679936"><ele>242.5</ele><time>2026-04-27T16:36:57Z</time></trkpt><trkpt lat="39.40837830132673" lon="8.531638494551828"><ele>243.66666666666669</ele><time>2026-04-27T16:36:58Z</time></trkpt><trkpt lat="39.40845320517387" lon="8.531672424947102"><ele>244.83333333333334</ele><time>2026-04-27T16:36:59Z</time></trkpt><trkpt lat="39.40850395183208" lon="8.531778722792524"><ele>246.0</ele><time>2026-04-27T16:37:01Z</time></trkpt><trkpt lat="39.408510452548406" lon="8.531937232123417"><ele>246.0</ele><time>2026-04-27T16:37:03Z</time></trkpt><trkpt lat="39.40850499729373" lon="8.532032816359086"><ele>246.0</ele><time>2026-04-27T16:37:04Z</time></trkpt><trkpt lat="39.408455573445906" lon="8.532129883867636"><ele>246.0</ele><time>2026-04-27T16:37:05Z</time></trkpt><trkpt lat="39.40839946860687" lon="8.532213584502859"><ele>246.0</ele><time>2026-04-27T16:37:06Z</time></trkpt><trkpt lat="39.40833775742489" lon="8.532294560811216"><ele>246.0</ele><time>2026-04-27T16:37:07Z</time></trkpt><trkpt lat="39.40826581067598" lon="8.532326562455369"><ele>246.0</ele><time>2026-04-27T16:37:08Z</time></trkpt><trkpt lat="39.4081627902042" lon="8.53239354955027"><ele>247.60000000000002</ele><time>2026-04-27T16:37:10Z</time></trkpt><trkpt lat="39.408084958974364" lon="8.532396511811413"><ele>249.20000000000002</ele><time>2026-04-27T16:37:11Z</time></trkpt><trkpt lat="39.4080258306176" lon="8.532445599736572"><ele>250.79999999999998</ele><time>2026-04-27T16:37:12Z</time></trkpt><trkpt lat="39.40795710424238" lon="8.532482833414571"><ele>252.39999999999998</ele><time>2026-04-27T16:37:13Z</time></trkpt><trkpt lat="39.40788128776993" lon="8.532518814686656"><ele>254.0</ele><time>2026-04-27T16:37:14Z</time></trkpt><trkpt lat="39.407737212229904" lon="8.532323508179829"><ele>254.83333333333334</ele><time>2026-04-27T16:37:15Z</time></trkpt><trkpt lat="39.407660222806506" lon="8.532308578287632"><ele>255.66666666666669</ele><time>2026-04-27T16:37:16Z</time></trkpt><trkpt lat="39.40759439603059" lon="8.532300349611967"><ele>256.5</ele><time>2026-04-27T16:37:17Z</time></trkpt><trkpt lat="39.407523450782655" lon="8.532303906542388"><ele>257.3333333333333</ele><time>2026-04-27T16:37:18Z</time></trkpt><trkpt lat="39.40744737941628" lon="8.532300421871627"><ele>258.16666666666663</ele><time>2026-04-27T16:37:19Z</time></trkpt><trkpt lat="39.407368321682874" lon="8.532286407031409"><ele>259.0</ele><time>2026-04-27T16:37:20Z</time></trkpt><trkpt lat="39.407286724736764" lon="8.532289897240839"><ele>259.0</ele><time>2026-04-27T16:37:21Z</time></trkpt><trkpt lat="39.407210208240045" lon="8.532305149641504"><ele>259.0</ele><time>2026-04-27T16:37:22Z</time></trkpt><trkpt lat="39.40714614518462" lon="8.532324705984896"><ele>259.0</ele><time>2026-04-27T16:37:23Z</time></trkpt><trkpt lat="39.40703048660123" lon="8.532344819227989"><ele>259.0</ele><time>2026-04-27T16:37:25.001Z</time></trkpt><trkpt lat="39.40695895055455" lon="8.532369239540527"><ele>259.0</ele><time>2026-04-27T16:37:26.001Z</time></trkpt><trkpt lat="39.40688189790206" lon="8.53241645709327"><ele>259.0</ele><time>2026-04-27T16:37:27.001Z</time></trkpt><trkpt lat="39.406824956384625" lon="8.532468419683378"><ele>262.0</ele><time>2026-04-27T16:37:28.001Z</time></trkpt><trkpt lat="39.40677801831873" lon="8.532534878886212"><ele>265.0</ele><time>2026-04-27T16:37:29.001Z</time></trkpt><trkpt lat="39.406718059808874" lon="8.5326575407604"><ele>268.0</ele><time>2026-04-27T16:37:31.001Z</time></trkpt><trkpt lat="39.4066654690984" lon="8.532757451019823"><ele>271.0</ele><time>2026-04-27T16:37:33.001Z</time></trkpt><trkpt lat="39.40661345144718" lon="8.532809291520797"><ele>274.0</ele><time>2026-04-27T16:37:34.001Z</time></trkpt><trkpt lat="39.40656032228213" lon="8.532856786523912"><ele>277.0</ele><time>2026-04-27T16:37:35.001Z</time></trkpt><trkpt lat="39.40645325147771" lon="8.532918853514728"><ele>277.8</ele><time>2026-04-27T16:37:37.001Z</time></trkpt><trkpt lat="39.40635681285517" lon="8.533035654163719"><ele>278.6</ele><time>2026-04-27T16:37:39.001Z</time></trkpt><trkpt lat="39.406304426184235" lon="8.533133310371484"><ele>279.40000000000003</ele><time>2026-04-27T16:37:40.001Z</time></trkpt><trkpt lat="39.40624217885917" lon="8.533205012753351"><ele>280.2</ele><time>2026-04-27T16:37:41.001Z</time></trkpt><trkpt lat="39.4061792064191" lon="8.533284249460982"><ele>281.0</ele><time>2026-04-27T16:37:42.001Z</time></trkpt><trkpt lat="39.40613183324803" lon="8.533348277531859"><ele>284.40000000000003</ele><time>2026-04-27T16:37:43.001Z</time></trkpt><trkpt lat="39.40608016384417" lon="8.533485555823445"><ele>287.8</ele><time>2026-04-27T16:37:45.001Z</time></trkpt><trkpt lat="39.40608096282926" lon="8.533620995063771"><ele>291.20000000000005</ele><time>2026-04-27T16:37:47.001Z</time></trkpt><trkpt lat="39.40608111486813" lon="8.533775428035202"><ele>294.6</ele><time>2026-04-27T16:37:49Z</time></trkpt><trkpt lat="39.40610286917948" lon="8.533871970171276"><ele>298.0</ele><time>2026-04-27T16:37:50Z</time></trkpt><trkpt lat="39.40612611050058" lon="8.533967998008128"><ele>298.5</ele><time>2026-04-27T16:37:51Z</time></trkpt><trkpt lat="39.4061576023418" lon="8.53405259931401"><ele>299.0</ele><time>2026-04-27T16:37:52Z</time></trkpt><trkpt lat="39.406191253932235" lon="8.534146372469644"><ele>299.5</ele><time>2026-04-27T16:37:53Z</time></trkpt><trkpt lat="39.40622105526145" lon="8.534250054402076"><ele>300.0</ele><time>2026-04-27T16:37:54Z</time></trkpt><trkpt lat="39.4062440352595" lon="8.53432837870546"><ele>300.5</ele><time>2026-04-27T16:37:55Z</time></trkpt><trkpt lat="39.4062452122693" lon="8.53447576374131"><ele>301.0</ele><time>2026-04-27T16:37:57Z</time></trkpt><trkpt lat="39.40620611043811" lon="8.53454130596337"><ele>302.66666666666663</ele><time>2026-04-27T16:37:58Z</time></trkpt><trkpt lat="39.406152533292264" lon="8.534608581151556"><ele>304.3333333333333</ele><time>2026-04-27T16:37:59Z</time></trkpt><trkpt lat="39.40609132240229" lon="8.534667103153295"><ele>306.0</ele><time>2026-04-27T16:38:00Z</time></trkpt><trkpt lat="39.40603186676046" lon="8.534744525496432"><ele>307.6666666666667</ele><time>2026-04-27T16:38:01Z</time></trkpt><trkpt lat="39.4059796511513" lon="8.534843463020485"><ele>309.33333333333337</ele><time>2026-04-27T16:38:03Z</time></trkpt><trkpt lat="39.40598181050911" lon="8.534967189509127"><ele>311.0</ele><time>2026-04-27T16:38:05Z</time></trkpt><trkpt lat="39.405990902241655" lon="8.53507462899592"><ele>311.0</ele><time>2026-04-27T16:38:06Z</time></trkpt><trkpt lat="39.40599608283861" lon="8.535182021543402"><ele>311.0</ele><time>2026-04-27T16:38:07Z</time></trkpt><trkpt lat="39.405990224439634" lon="8.535295828359676"><ele>311.0</ele><time>2026-04-27T16:38:08Z</time></trkpt><trkpt lat="39.405983182403986" lon="8.535398011271194"><ele>311.0</ele><time>2026-04-27T16:38:09Z</time></trkpt><trkpt lat="39.405966394470035" lon="8.535491796312792"><ele>311.0</ele><time>2026-04-27T16:38:10Z</time></trkpt><trkpt lat="39.40596018833819" lon="8.53560650930687"><ele>311.0</ele><time>2026-04-27T16:38:11Z</time></trkpt><trkpt lat="39.405964242455276" lon="8.535709133034448"><ele>313.0</ele><time>2026-04-27T16:38:12Z</time></trkpt><trkpt lat="39.40598426962911" lon="8.53579536986645"><ele>315.0</ele><time>2026-04-27T16:38:13Z</time></trkpt><trkpt lat="39.40604555071045" lon="8.535952040512736"><ele>317.0</ele><time>2026-04-27T16:38:15Z</time></trkpt><trkpt lat="39.406094192910736" lon="8.536005193443001"><ele>319.0</ele><time>2026-04-27T16:38:16Z</time></trkpt><trkpt lat="39.40620492983736" lon="8.536064991750838"><ele>321.0</ele><time>2026-04-27T16:38:18Z</time></trkpt><trkpt lat="39.406268541676695" lon="8.536066958533862"><ele>321.5</ele><time>2026-04-27T16:38:19Z</time></trkpt><trkpt lat="39.406332862131514" lon="8.53612450659588"><ele>322.0</ele><time>2026-04-27T16:38:20Z</time></trkpt><trkpt lat="39.406408434083126" lon="8.536120705124441"><ele>322.5</ele><time>2026-04-27T16:38:21Z</time></trkpt><trkpt lat="39.406529649999385" lon="8.536170880895611"><ele>323.0</ele><time>2026-04-27T16:38:23Z</time></trkpt><trkpt lat="39.40657952668607" lon="8.536229096075767"><ele>323.5</ele><time>2026-04-27T16:38:24Z</time></trkpt><trkpt lat="39.40661503463185" lon="8.536307484918119"><ele>324.0</ele><time>2026-04-27T16:38:25Z</time></trkpt><trkpt lat="39.40669129973674" lon="8.536362456313343"><ele>324.79999999999995</ele><time>2026-04-27T16:38:26Z</time></trkpt><trkpt lat="39.40673724928335" lon="8.536444794225885"><ele>325.59999999999997</ele><time>2026-04-27T16:38:27Z</time></trkpt><trkpt lat="39.40678413557674" lon="8.536544940604132"><ele>326.4</ele><time>2026-04-27T16:38:28Z</time></trkpt><trkpt lat="39.40680471981259" lon="8.536671456701358"><ele>327.2</ele><time>2026-04-27T16:38:29Z</time></trkpt><trkpt lat="39.40681347380783" lon="8.53679382861399"><ele>328.0</ele><time>2026-04-27T16:38:30Z</time></trkpt><trkpt lat="39.40680544683275" lon="8.536905357761137"><ele>328.0</ele><time>2026-04-27T16:38:31Z</time></trkpt><trkpt lat="39.40679628570021" lon="8.537024327897806"><ele>328.0</ele><time>2026-04-27T16:38:32Z</time></trkpt><trkpt lat="39.406782063850294" lon="8.537137317257477"><ele>328.0</ele><time>2026-04-27T16:38:33Z</time></trkpt><trkpt lat="39.406774495014744" lon="8.537250133071232"><ele>328.0</ele><time>2026-04-27T16:38:34Z</time></trkpt><trkpt lat="39.40674688736032" lon="8.537367871206829"><ele>328.0</ele><time>2026-04-27T16:38:35Z</time></trkpt><trkpt lat="39.406721481593934" lon="8.537473684525478"><ele>328.0</ele><time>2026-04-27T16:38:36Z</time></trkpt><trkpt lat="39.40669459118622" lon="8.53759517915679"><ele>329.8333333333333</ele><time>2026-04-27T16:38:37Z</time></trkpt><trkpt lat="39.4066656355745" lon="8.53770925032118"><ele>331.66666666666663</ele><time>2026-04-27T16:38:38Z</time></trkpt><trkpt lat="39.40664014050212" lon="8.537801495569852"><ele>333.5</ele><time>2026-04-27T16:38:39Z</time></trkpt><trkpt lat="39.406589014879316" lon="8.537885223713317"><ele>335.3333333333333</ele><time>2026-04-27T16:38:40Z</time></trkpt><trkpt lat="39.40656121661078" lon="8.537972704821705"><ele>337.1666666666667</ele><time>2026-04-27T16:38:41Z</time></trkpt><trkpt lat="39.4065009884848" lon="8.538051005791747"><ele>339.0</ele><time>2026-04-27T16:38:42Z</time></trkpt><trkpt lat="39.40641484537927" lon="8.538054152796873"><ele>342.0</ele><time>2026-04-27T16:38:43Z</time></trkpt><trkpt lat="39.40631590200656" lon="8.53809972097433"><ele>345.0</ele><time>2026-04-27T16:38:45Z</time></trkpt><trkpt lat="39.40621228424427" lon="8.538131175398087"><ele>348.0</ele><time>2026-04-27T16:38:47Z</time></trkpt><trkpt lat="39.40612602760014" lon="8.53816010413964"><ele>351.0</ele><time>2026-04-27T16:38:49Z</time></trkpt><trkpt lat="39.406061559195685" lon="8.538236266697371"><ele>354.0</ele><time>2026-04-27T16:39:35Z</time></trkpt><trkpt lat="39.406027178918016" lon="8.538307705789641"><ele>354.0</ele><time>2026-04-27T16:40:27.001Z</time></trkpt><trkpt lat="39.405965730788346" lon="8.538360107476233"><ele>354.0</ele><time>2026-04-27T16:40:30.001Z</time></trkpt><trkpt lat="39.40594282537896" lon="8.538465029215388"><ele>354.0</ele><time>2026-04-27T16:40:32.001Z</time></trkpt><trkpt lat="39.40593706558155" lon="8.538618943041941"><ele>354.0</ele><time>2026-04-27T16:40:34.001Z</time></trkpt><trkpt lat="39.40590926144792" lon="8.53878823341779"><ele>354.0</ele><time>2026-04-27T16:40:36.001Z</time></trkpt><trkpt lat="39.40599184936998" lon="8.538906290164766"><ele>358.0</ele><time>2026-04-27T16:40:38.001Z</time></trkpt><trkpt lat="39.40603053144567" lon="8.539052173530525"><ele>362.0</ele><time>2026-04-27T16:40:40.001Z</time></trkpt><trkpt lat="39.40607714362954" lon="8.539132402050267"><ele>366.0</ele><time>2026-04-27T16:40:41.001Z</time></trkpt><trkpt lat="39.40614093602144" lon="8.539266323495603"><ele>370.0</ele><time>2026-04-27T16:40:43.001Z</time></trkpt><trkpt lat="39.40621414225428" lon="8.539395741748175"><ele>374.0</ele><time>2026-04-27T16:40:45.001Z</time></trkpt><trkpt lat="39.40624186581918" lon="8.5394778295927"><ele>378.5</ele><time>2026-04-27T16:40:46.001Z</time></trkpt><trkpt lat="39.4062743029691" lon="8.539553228057606"><ele>383.0</ele><time>2026-04-27T16:40:47.001Z</time></trkpt><trkpt lat="39.40626625525653" lon="8.539710525631161"><ele>387.5</ele><time>2026-04-27T16:40:49.001Z</time></trkpt><trkpt lat="39.40625166199061" lon="8.539795467349665"><ele>392.0</ele><time>2026-04-27T16:40:50.001Z</time></trkpt><trkpt lat="39.40629906482548" lon="8.539893149698802"><ele>396.49999999999994</ele><time>2026-04-27T16:40:52.001Z</time></trkpt><trkpt lat="39.40635987511494" lon="8.53993041532787"><ele>401.0</ele><time>2026-04-27T16:40:53.001Z</time></trkpt><trkpt lat="39.40645394013272" lon="8.539932371314661"><ele>400.99999999999994</ele><time>2026-04-27T16:40:55.001Z</time></trkpt><trkpt lat="39.406500740312026" lon="8.539834848876554"><ele>401.0</ele><time>2026-04-27T16:40:57.001Z</time></trkpt><trkpt lat="39.40651281727557" lon="8.539744797270767"><ele>401.0</ele><time>2026-04-27T16:40:58.001Z</time></trkpt><trkpt lat="39.40651976151923" lon="8.539657126132381"><ele>401.0</ele><time>2026-04-27T16:40:59.001Z</time></trkpt><trkpt lat="39.40653155054411" lon="8.539572507975118"><ele>400.99999999999994</ele><time>2026-04-27T16:41:00.001Z</time></trkpt><trkpt lat="39.40655968792011" lon="8.539460726385913"><ele>401.0</ele><time>2026-04-27T16:41:02.001Z</time></trkpt><trkpt lat="39.4066146335475" lon="8.53952436769009"><ele>401.0</ele><time>2026-04-27T16:41:05.001Z</time></trkpt><trkpt lat="39.406613756087474" lon="8.539620606201915"><ele>401.0</ele><time>2026-04-27T16:41:07.001Z</time></trkpt><trkpt lat="39.406621774743634" lon="8.539746276754924"><ele>401.0</ele><time>2026-04-27T16:41:09.001Z</time></trkpt><trkpt lat="39.40666499890505" lon="8.539875836864914"><ele>401.0</ele><time>2026-04-27T16:41:11.001Z</time></trkpt><trkpt lat="39.40668242228681" lon="8.540020102236218"><ele>401.0</ele><time>2026-04-27T16:41:13.001Z</time></trkpt><trkpt lat="39.40666477753821" lon="8.54011462018613"><ele>400.99999999999994</ele><time>2026-04-27T16:41:15.002Z</time></trkpt><trkpt lat="39.406681270240114" lon="8.540198554769864"><ele>401.0</ele><time>2026-04-27T16:41:17.002Z</time></trkpt><trkpt lat="39.40669387752459" lon="8.540288999060486"><ele>401.0</ele><time>2026-04-27T16:41:18.002Z</time></trkpt><trkpt lat="39.40671758565467" lon="8.54042645093652"><ele>401.0</ele><time>2026-04-27T16:41:20.002Z</time></trkpt><trkpt lat="39.40678661515065" lon="8.54054875696897"><ele>400.99999999999994</ele><time>2026-04-27T16:41:22.002Z</time></trkpt><trkpt lat="39.406834893550645" lon="8.540621467535626"><ele>401.0</ele><time>2026-04-27T16:41:23.002Z</time></trkpt><trkpt lat="39.40687469113633" lon="8.540695362014032"><ele>404.16666666666663</ele><time>2026-04-27T16:41:24.002Z</time></trkpt><trkpt lat="39.40691025070627" lon="8.540764912254634"><ele>407.3333333333333</ele><time>2026-04-27T16:41:25.002Z</time></trkpt><trkpt lat="39.406940301846625" lon="8.54084255546504"><ele>410.5</ele><time>2026-04-27T16:41:26.002Z</time></trkpt><trkpt lat="39.406988196524175" lon="8.540996257482256"><ele>413.66666666666663</ele><time>2026-04-27T16:41:28.002Z</time></trkpt><trkpt lat="39.40698988000374" lon="8.541087356293186"><ele>416.8333333333333</ele><time>2026-04-27T16:41:29.002Z</time></trkpt><trkpt lat="39.40698992792432" lon="8.541181480979741"><ele>420.0</ele><time>2026-04-27T16:41:30.002Z</time></trkpt><trkpt lat="39.40699514334056" lon="8.541283244856375"><ele>422.0</ele><time>2026-04-27T16:41:31.002Z</time></trkpt><trkpt lat="39.40699471383334" lon="8.541383128058188"><ele>424.0</ele><time>2026-04-27T16:41:32.002Z</time></trkpt><trkpt lat="39.40698285445863" lon="8.541477358641815"><ele>426.0</ele><time>2026-04-27T16:41:33.002Z</time></trkpt><trkpt lat="39.40695351509736" lon="8.541552690307741"><ele>428.0</ele><time>2026-04-27T16:41:34.002Z</time></trkpt><trkpt lat="39.406925629959204" lon="8.541634320791095"><ele>430.0</ele><time>2026-04-27T16:41:35.002Z</time></trkpt><trkpt lat="39.40685695426769" lon="8.541742056830287"><ele>432.0</ele><time>2026-04-27T16:41:37.002Z</time></trkpt><trkpt lat="39.40681121607346" lon="8.541879366573891"><ele>432.0</ele><time>2026-04-27T16:41:40.002Z</time></trkpt><trkpt lat="39.40677475562346" lon="8.542003825084308"><ele>432.0</ele><time>2026-04-27T16:41:42.002Z</time></trkpt><trkpt lat="39.40678411838558" lon="8.542105808086932"><ele>432.0</ele><time>2026-04-27T16:41:44.002Z</time></trkpt><trkpt lat="39.40680706215169" lon="8.542183456314902"><ele>432.0</ele><time>2026-04-27T16:41:45.002Z</time></trkpt><trkpt lat="39.4068480150929" lon="8.542267808274099"><ele>432.0</ele><time>2026-04-27T16:41:46.002Z</time></trkpt><trkpt lat="39.406885460801384" lon="8.542337655325195"><ele>432.0</ele><time>2026-04-27T16:41:47.002Z</time></trkpt><trkpt lat="39.40692772629444" lon="8.542415797721086"><ele>431.8</ele><time>2026-04-27T16:41:48.002Z</time></trkpt><trkpt lat="39.40689861829332" lon="8.542550764408338"><ele>431.6</ele><time>2026-04-27T16:41:50.002Z</time></trkpt><trkpt lat="39.406821455438205" lon="8.542666097290335"><ele>431.40000000000003</ele><time>2026-04-27T16:41:52.002Z</time></trkpt><trkpt lat="39.40677767751568" lon="8.542742611564119"><ele>431.20000000000005</ele><time>2026-04-27T16:41:53.002Z</time></trkpt><trkpt lat="39.406740969826366" lon="8.54282481989015"><ele>431.0</ele><time>2026-04-27T16:41:54.002Z</time></trkpt><trkpt lat="39.40673646234581" lon="8.542943489276302"><ele>433.0</ele><time>2026-04-27T16:41:56.002Z</time></trkpt><trkpt lat="39.40674310939547" lon="8.543038057398865"><ele>435.0</ele><time>2026-04-27T16:41:58.002Z</time></trkpt><trkpt lat="39.40676525682099" lon="8.54317397141816"><ele>437.0</ele><time>2026-04-27T16:42:02.002Z</time></trkpt><trkpt lat="39.406842146987785" lon="8.543195596360519"><ele>439.0</ele><time>2026-04-27T16:42:04.002Z</time></trkpt><trkpt lat="39.40692419226173" lon="8.543132815470633"><ele>441.0</ele><time>2026-04-27T16:42:06.002Z</time></trkpt><trkpt lat="39.407037369530954" lon="8.543050740634179"><ele>441.0</ele><time>2026-04-27T16:42:08.002Z</time></trkpt><trkpt lat="39.407102634691405" lon="8.5430152730147"><ele>441.0</ele><time>2026-04-27T16:42:09.002Z</time></trkpt><trkpt lat="39.40718070941038" lon="8.543088137471644"><ele>441.0</ele><time>2026-04-27T16:42:10.002Z</time></trkpt><trkpt lat="39.40725709717642" lon="8.54307395919212"><ele>441.0</ele><time>2026-04-27T16:42:11.002Z</time></trkpt><trkpt lat="39.40734438993002" lon="8.5430711065564"><ele>441.0</ele><time>2026-04-27T16:42:12.002Z</time></trkpt><trkpt lat="39.40742421568112" lon="8.543067397613417"><ele>441.0</ele><time>2026-04-27T16:42:13.002Z</time></trkpt><trkpt lat="39.40750193694711" lon="8.543052444612204"><ele>443.0</ele><time>2026-04-27T16:42:14.002Z</time></trkpt><trkpt lat="39.407635837421324" lon="8.54301776048543"><ele>445.0</ele><time>2026-04-27T16:42:16.002Z</time></trkpt><trkpt lat="39.40770992863283" lon="8.54295791936639"><ele>447.0</ele><time>2026-04-27T16:42:17.002Z</time></trkpt><trkpt lat="39.407782832857436" lon="8.542937580322109"><ele>449.0</ele><time>2026-04-27T16:42:18.002Z</time></trkpt><trkpt lat="39.407861660163945" lon="8.542902408158268"><ele>451.0</ele><time>2026-04-27T16:42:19.002Z</time></trkpt><trkpt lat="39.40794215198872" lon="8.542901899897156"><ele>451.33333333333337</ele><time>2026-04-27T16:42:20.002Z</time></trkpt><trkpt lat="39.40800980485647" lon="8.542873324596075"><ele>451.6666666666667</ele><time>2026-04-27T16:42:21.002Z</time></trkpt><trkpt lat="39.40807751464269" lon="8.542809483186188"><ele>452.0</ele><time>2026-04-27T16:42:22.002Z</time></trkpt><trkpt lat="39.408125099876386" lon="8.542735131709629"><ele>452.33333333333337</ele><time>2026-04-27T16:42:23.002Z</time></trkpt><trkpt lat="39.40817843538474" lon="8.54264384897077"><ele>452.6666666666667</ele><time>2026-04-27T16:42:24.002Z</time></trkpt><trkpt lat="39.40823341441377" lon="8.542545376518282"><ele>453.0</ele><time>2026-04-27T16:42:25.002Z</time></trkpt><trkpt lat="39.408285954355264" lon="8.542448449242025"><ele>453.0</ele><time>2026-04-27T16:42:26.002Z</time></trkpt><trkpt lat="39.40834821981619" lon="8.54237385696185"><ele>453.0</ele><time>2026-04-27T16:42:27.002Z</time></trkpt><trkpt lat="39.40841393823761" lon="8.542319253218453"><ele>453.0</ele><time>2026-04-27T16:42:28.002Z</time></trkpt><trkpt lat="39.408484445588066" lon="8.542297739828104"><ele>453.0</ele><time>2026-04-27T16:42:29.002Z</time></trkpt><trkpt lat="39.4085610264063" lon="8.542312204658732"><ele>453.0</ele><time>2026-04-27T16:42:30.002Z</time></trkpt><trkpt lat="39.40863281000691" lon="8.542348160801271"><ele>453.0</ele><time>2026-04-27T16:42:31.002Z</time></trkpt><trkpt lat="39.40867799277276" lon="8.542413499758355"><ele>453.0</ele><time>2026-04-27T16:42:32.002Z</time></trkpt><trkpt lat="39.40871968031264" lon="8.542496629263578"><ele>452.99999999999994</ele><time>2026-04-27T16:42:33.002Z</time></trkpt><trkpt lat="39.40875953762392" lon="8.54261019171041"><ele>452.99999999999994</ele><time>2026-04-27T16:42:34.002Z</time></trkpt><trkpt lat="39.40879542273625" lon="8.542720892794378"><ele>453.0</ele><time>2026-04-27T16:42:35.002Z</time></trkpt><trkpt lat="39.40882852387242" lon="8.542849247327206"><ele>453.0</ele><time>2026-04-27T16:42:36.002Z</time></trkpt><trkpt lat="39.40886012866563" lon="8.542970606825937"><ele>453.0</ele><time>2026-04-27T16:42:37.002Z</time></trkpt><trkpt lat="39.408877304744145" lon="8.543081952983073"><ele>453.0</ele><time>2026-04-27T16:42:38.002Z</time></trkpt><trkpt lat="39.40888728118137" lon="8.54318273670353"><ele>453.0</ele><time>2026-04-27T16:42:39.002Z</time></trkpt><trkpt lat="39.40889048382696" lon="8.543269728298249"><ele>453.0</ele><time>2026-04-27T16:42:40.002Z</time></trkpt><trkpt lat="39.40892354520315" lon="8.543343433317776"><ele>453.0</ele><time>2026-04-27T16:42:42.002Z</time></trkpt><trkpt lat="39.409042830820376" lon="8.543346479729864"><ele>453.0</ele><time>2026-04-27T16:42:44.002Z</time></trkpt><trkpt lat="39.409144824648884" lon="8.54333670605361"><ele>453.0</ele><time>2026-04-27T16:42:45.002Z</time></trkpt><trkpt lat="39.40925564835813" lon="8.543293970750527"><ele>452.99999999999994</ele><time>2026-04-27T16:42:46.002Z</time></trkpt><trkpt lat="39.40936344479169" lon="8.543276962504502"><ele>452.99999999999994</ele><time>2026-04-27T16:42:47.002Z</time></trkpt><trkpt lat="39.40944306282635" lon="8.54324186808389"><ele>453.0</ele><time>2026-04-27T16:42:48.003Z</time></trkpt><trkpt lat="39.40953336178378" lon="8.543209831813082"><ele>453.0</ele><time>2026-04-27T16:42:49.003Z</time></trkpt><trkpt lat="39.40962383727466" lon="8.543196090763159"><ele>450.0</ele><time>2026-04-27T16:42:50.003Z</time></trkpt><trkpt lat="39.409713135572275" lon="8.54318440413267"><ele>446.99999999999994</ele><time>2026-04-27T16:42:51.003Z</time></trkpt><trkpt lat="39.40980509156645" lon="8.543170065965072"><ele>443.99999999999994</ele><time>2026-04-27T16:42:52.003Z</time></trkpt><trkpt lat="39.40989170484109" lon="8.543145209154316"><ele>441.0</ele><time>2026-04-27T16:42:53.003Z</time></trkpt><trkpt lat="39.40997924127185" lon="8.543092338512048"><ele>438.0</ele><time>2026-04-27T16:42:54.003Z</time></trkpt><trkpt lat="39.41008483466094" lon="8.543038700393343"><ele>438.0</ele><time>2026-04-27T16:42:55.003Z</time></trkpt><trkpt lat="39.4101883944083" lon="8.542994875884784"><ele>437.99999999999994</ele><time>2026-04-27T16:42:56.003Z</time></trkpt><trkpt lat="39.41028413997388" lon="8.5429445689634"><ele>437.99999999999994</ele><time>2026-04-27T16:42:57.003Z</time></trkpt><trkpt lat="39.4103639342216" lon="8.542892121477875"><ele>438.0</ele><time>2026-04-27T16:42:58.003Z</time></trkpt><trkpt lat="39.4104466963035" lon="8.542845828385461"><ele>438.0</ele><time>2026-04-27T16:42:59.003Z</time></trkpt><trkpt lat="39.41051960173046" lon="8.542815715442346"><ele>434.0</ele><time>2026-04-27T16:43:00.003Z</time></trkpt><trkpt lat="39.410581954745886" lon="8.542793310288623"><ele>430.0</ele><time>2026-04-27T16:43:01.003Z</time></trkpt><trkpt lat="39.410658786187746" lon="8.542825912390283"><ele>426.0</ele><time>2026-04-27T16:43:03.003Z</time></trkpt><trkpt lat="39.41070369152844" lon="8.542936253047934"><ele>422.0</ele><time>2026-04-27T16:43:05.003Z</time></trkpt><trkpt lat="39.41067793407196" lon="8.543081788875723"><ele>418.0</ele><time>2026-04-27T16:43:07.003Z</time></trkpt><trkpt lat="39.41064683920196" lon="8.543156132130166"><ele>414.0</ele><time>2026-04-27T16:43:08.003Z</time></trkpt><trkpt lat="39.41060844689782" lon="8.543239015762621"><ele>414.0</ele><time>2026-04-27T16:43:09.003Z</time></trkpt><trkpt lat="39.410578941998736" lon="8.543399570858488"><ele>414.0</ele><time>2026-04-27T16:43:11.003Z</time></trkpt><trkpt lat="39.41054365814354" lon="8.543532122938503"><ele>414.0</ele><time>2026-04-27T16:43:13.003Z</time></trkpt><trkpt lat="39.410431569827374" lon="8.543601484642158"><ele>414.0</ele><time>2026-04-27T16:43:15.003Z</time></trkpt><trkpt lat="39.41035015541266" lon="8.543629271230147"><ele>414.0</ele><time>2026-04-27T16:43:16.003Z</time></trkpt><trkpt lat="39.410277354757646" lon="8.54364238188631"><ele>417.2</ele><time>2026-04-27T16:43:17.003Z</time></trkpt><trkpt lat="39.41018951584088" lon="8.543723082564002"><ele>420.4</ele><time>2026-04-27T16:43:19.003Z</time></trkpt><trkpt lat="39.41015201803602" lon="8.543791960109141"><ele>423.6</ele><time>2026-04-27T16:43:20.003Z</time></trkpt><trkpt lat="39.410133180138246" lon="8.543886280696615"><ele>426.8</ele><time>2026-04-27T16:43:21.003Z</time></trkpt><trkpt lat="39.41012552205208" lon="8.544012297137517"><ele>430.0</ele><time>2026-04-27T16:43:22.003Z</time></trkpt><trkpt lat="39.41012198343008" lon="8.544147824434809"><ele>430.00000000000006</ele><time>2026-04-27T16:43:23.003Z</time></trkpt><trkpt lat="39.41012198772652" lon="8.544265447622772"><ele>430.0</ele><time>2026-04-27T16:43:24.003Z</time></trkpt><trkpt lat="39.410115808132865" lon="8.544372201726917"><ele>430.0</ele><time>2026-04-27T16:43:25.003Z</time></trkpt><trkpt lat="39.410097821081784" lon="8.544491008107121"><ele>430.0</ele><time>2026-04-27T16:43:26.003Z</time></trkpt><trkpt lat="39.410067574348936" lon="8.544577001257673"><ele>430.00000000000006</ele><time>2026-04-27T16:43:27.003Z</time></trkpt><trkpt lat="39.41003586497966" lon="8.544667853873145"><ele>430.0</ele><time>2026-04-27T16:43:28.003Z</time></trkpt><trkpt lat="39.41000303130982" lon="8.54475427375325"><ele>427.83333333333337</ele><time>2026-04-27T16:43:29.003Z</time></trkpt><trkpt lat="39.40995083814496" lon="8.544816497237885"><ele>425.6666666666667</ele><time>2026-04-27T16:43:30.003Z</time></trkpt><trkpt lat="39.409881691101496" lon="8.544865134142345"><ele>423.5</ele><time>2026-04-27T16:43:31.003Z</time></trkpt><trkpt lat="39.409812324868994" lon="8.544916142581423"><ele>421.33333333333337</ele><time>2026-04-27T16:43:32.003Z</time></trkpt><trkpt lat="39.4097590748494" lon="8.544973743013605"><ele>419.1666666666667</ele><time>2026-04-27T16:43:33.003Z</time></trkpt><trkpt lat="39.40973125493392" lon="8.545059812481117"><ele>417.0</ele><time>2026-04-27T16:43:34.003Z</time></trkpt><trkpt lat="39.40971410759533" lon="8.545171024390417"><ele>417.0</ele><time>2026-04-27T16:43:35.003Z</time></trkpt><trkpt lat="39.409704538673566" lon="8.545279743946"><ele>417.0</ele><time>2026-04-27T16:43:36.003Z</time></trkpt><trkpt lat="39.40969433854862" lon="8.545363021941354"><ele>417.0</ele><time>2026-04-27T16:43:37.003Z</time></trkpt><trkpt lat="39.40968325194672" lon="8.545455813852428"><ele>417.0</ele><time>2026-04-27T16:43:38.003Z</time></trkpt><trkpt lat="39.409660780670556" lon="8.545538575510392"><ele>417.0</ele><time>2026-04-27T16:43:39.003Z</time></trkpt><trkpt lat="39.409584225645915" lon="8.5456379216797"><ele>417.0</ele><time>2026-04-27T16:43:41.003Z</time></trkpt><trkpt lat="39.40949213168627" lon="8.545698111854504"><ele>422.1666666666667</ele><time>2026-04-27T16:43:43.003Z</time></trkpt><trkpt lat="39.40944620044159" lon="8.545760033116201"><ele>427.33333333333337</ele><time>2026-04-27T16:43:44.003Z</time></trkpt><trkpt lat="39.409404857378796" lon="8.545834017974796"><ele>432.5</ele><time>2026-04-27T16:43:45.003Z</time></trkpt><trkpt lat="39.40933923450153" lon="8.54592916105392"><ele>437.6666666666667</ele><time>2026-04-27T16:43:46.003Z</time></trkpt><trkpt lat="39.40930036617864" lon="8.546004351470025"><ele>442.83333333333337</ele><time>2026-04-27T16:43:47.003Z</time></trkpt><trkpt lat="39.4092930858015" lon="8.546180779779068"><ele>448.0</ele><time>2026-04-27T16:43:49.003Z</time></trkpt><trkpt lat="39.40932471721363" lon="8.546299726336972"><ele>448.00000000000006</ele><time>2026-04-27T16:43:50.003Z</time></trkpt><trkpt lat="39.40934858784395" lon="8.546411553894885"><ele>448.0</ele><time>2026-04-27T16:43:51.003Z</time></trkpt><trkpt lat="39.40934276588361" lon="8.54651082034919"><ele>448.0</ele><time>2026-04-27T16:43:52.003Z</time></trkpt><trkpt lat="39.40932459498636" lon="8.54660168985189"><ele>448.0</ele><time>2026-04-27T16:43:53.003Z</time></trkpt><trkpt lat="39.409286370308585" lon="8.546697818482361"><ele>448.00000000000006</ele><time>2026-04-27T16:43:54.003Z</time></trkpt><trkpt lat="39.40922099036604" lon="8.546766209055365"><ele>448.0</ele><time>2026-04-27T16:43:55.003Z</time></trkpt><trkpt lat="39.40915623264246" lon="8.546866230690876"><ele>448.0</ele><time>2026-04-27T16:43:56.003Z</time></trkpt><trkpt lat="39.40909354455013" lon="8.546970443752917"><ele>447.99999999999994</ele><time>2026-04-27T16:43:57.003Z</time></trkpt><trkpt lat="39.40902589643951" lon="8.547058360414018"><ele>447.99999999999994</ele><time>2026-04-27T16:43:58.003Z</time></trkpt><trkpt lat="39.40897256686945" lon="8.547143931457438"><ele>448.0</ele><time>2026-04-27T16:43:59.003Z</time></trkpt><trkpt lat="39.4089310586545" lon="8.547239130487963"><ele>448.0</ele><time>2026-04-27T16:44:00.003Z</time></trkpt><trkpt lat="39.40888939871943" lon="8.547407376689394"><ele>447.6666666666667</ele><time>2026-04-27T16:44:02.003Z</time></trkpt><trkpt lat="39.40885390147983" lon="8.547502333392263"><ele>447.33333333333337</ele><time>2026-04-27T16:44:03.003Z</time></trkpt><trkpt lat="39.40882519417788" lon="8.547589709851781"><ele>447.0</ele><time>2026-04-27T16:44:04.003Z</time></trkpt><trkpt lat="39.408806692317256" lon="8.547690593693828"><ele>446.66666666666663</ele><time>2026-04-27T16:44:05.003Z</time></trkpt><trkpt lat="39.408805238494715" lon="8.547794825014865"><ele>446.3333333333333</ele><time>2026-04-27T16:44:06.003Z</time></trkpt><trkpt lat="39.408806092559395" lon="8.547881830331281"><ele>446.0</ele><time>2026-04-27T16:44:07.003Z</time></trkpt><trkpt lat="39.408814925702984" lon="8.548027108742604"><ele>455.8</ele><time>2026-04-27T16:44:09.003Z</time></trkpt><trkpt lat="39.408791506276714" lon="8.548153524023652"><ele>465.6</ele><time>2026-04-27T16:44:11.003Z</time></trkpt><trkpt lat="39.40879493831896" lon="8.548298539666824"><ele>475.4</ele><time>2026-04-27T16:44:13.003Z</time></trkpt><trkpt lat="39.408810958750735" lon="8.54837990436689"><ele>485.2</ele><time>2026-04-27T16:44:14.003Z</time></trkpt><trkpt lat="39.40879824360636" lon="8.548463794116342"><ele>495.0</ele><time>2026-04-27T16:44:15.003Z</time></trkpt><trkpt lat="39.40876359316571" lon="8.54860312611384"><ele>495.0</ele><time>2026-04-27T16:44:17.003Z</time></trkpt><trkpt lat="39.408724930465645" lon="8.548693570534342"><ele>495.0</ele><time>2026-04-27T16:44:19.003Z</time></trkpt><trkpt lat="39.408698149040205" lon="8.54885585374914"><ele>495.0</ele><time>2026-04-27T16:44:21.003Z</time></trkpt><trkpt lat="39.40868395732895" lon="8.54894917116801"><ele>495.0</ele><time>2026-04-27T16:44:22.003Z</time></trkpt><trkpt lat="39.408673411808635" lon="8.549031872600851"><ele>495.0</ele><time>2026-04-27T16:44:23.003Z</time></trkpt><trkpt lat="39.40862797583446" lon="8.549177649728682"><ele>494.4</ele><time>2026-04-27T16:44:25.003Z</time></trkpt><trkpt lat="39.40858417701261" lon="8.549249164266369"><ele>493.8</ele><time>2026-04-27T16:44:26.003Z</time></trkpt><trkpt lat="39.40847302534412" lon="8.549310349968053"><ele>493.20000000000005</ele><time>2026-04-27T16:44:28.003Z</time></trkpt><trkpt lat="39.408400938463565" lon="8.549323384893604"><ele>492.6</ele><time>2026-04-27T16:44:29.003Z</time></trkpt><trkpt lat="39.40829840977188" lon="8.549344871451293"><ele>492.0</ele><time>2026-04-27T16:44:31.004Z</time></trkpt><trkpt lat="39.40821131588238" lon="8.54939434685487"><ele>492.0</ele><time>2026-04-27T16:44:33.004Z</time></trkpt><trkpt lat="39.408159480789266" lon="8.549500829223348"><ele>492.0</ele><time>2026-04-27T16:44:35.004Z</time></trkpt><trkpt lat="39.408107838338346" lon="8.549650217663483"><ele>492.0</ele><time>2026-04-27T16:44:37.004Z</time></trkpt><trkpt lat="39.40808114607143" lon="8.549735247296075"><ele>492.0</ele><time>2026-04-27T16:44:38.004Z</time></trkpt><trkpt lat="39.4080505474613" lon="8.549812288566226"><ele>492.0</ele><time>2026-04-27T16:44:39.004Z</time></trkpt><trkpt lat="39.408021159320434" lon="8.549892107760712"><ele>492.0</ele><time>2026-04-27T16:44:40.004Z</time></trkpt><trkpt lat="39.40797351193055" lon="8.550041450044102"><ele>496.0</ele><time>2026-04-27T16:44:42.004Z</time></trkpt><trkpt lat="39.40793918870521" lon="8.550112762277811"><ele>500.0</ele><time>2026-04-27T16:44:43.004Z</time></trkpt><trkpt lat="39.407905310891955" lon="8.550189643744293"><ele>504.0</ele><time>2026-04-27T16:44:44.004Z</time></trkpt><trkpt lat="39.40787111265378" lon="8.55026898401788"><ele>508.0</ele><time>2026-04-27T16:44:45.004Z</time></trkpt><trkpt lat="39.40781922622577" lon="8.55039603102848"><ele>512.0</ele><time>2026-04-27T16:44:47.004Z</time></trkpt><trkpt lat="39.40777623674963" lon="8.550481553561736"><ele>516.0</ele><time>2026-04-27T16:44:48.004Z</time></trkpt><trkpt lat="39.40773233781021" lon="8.550575919040186"><ele>516.0</ele><time>2026-04-27T16:44:49.004Z</time></trkpt><trkpt lat="39.40768089878149" lon="8.55066330688502"><ele>516.0</ele><time>2026-04-27T16:44:50.004Z</time></trkpt><trkpt lat="39.40762158678612" lon="8.55073495393249"><ele>516.0</ele><time>2026-04-27T16:44:51.004Z</time></trkpt><trkpt lat="39.407557887439395" lon="8.550805909434668"><ele>516.0</ele><time>2026-04-27T16:44:52.004Z</time></trkpt><trkpt lat="39.40748839483246" lon="8.55088835039518"><ele>516.0</ele><time>2026-04-27T16:44:53.004Z</time></trkpt><trkpt lat="39.407435886218444" lon="8.550961956550504"><ele>516.0</ele><time>2026-04-27T16:44:54.004Z</time></trkpt><trkpt lat="39.40738676385913" lon="8.551050244855084"><ele>516.0</ele><time>2026-04-27T16:44:55.004Z</time></trkpt><trkpt lat="39.407345029607846" lon="8.551136222556895"><ele>516.0</ele><time>2026-04-27T16:44:56.004Z</time></trkpt><trkpt lat="39.4072956752992" lon="8.55122652535506"><ele>516.0</ele><time>2026-04-27T16:44:57.004Z</time></trkpt><trkpt lat="39.40724299445146" lon="8.551302930267523"><ele>516.0</ele><time>2026-04-27T16:44:58.004Z</time></trkpt><trkpt lat="39.407201316873156" lon="8.551375663016856"><ele>516.0</ele><time>2026-04-27T16:44:59.004Z</time></trkpt><trkpt lat="39.40716429866385" lon="8.551450943460534"><ele>516.0</ele><time>2026-04-27T16:45:00.004Z</time></trkpt><trkpt lat="39.407086713705866" lon="8.551582518082347"><ele>518.0</ele><time>2026-04-27T16:45:02.004Z</time></trkpt><trkpt lat="39.40703490375881" lon="8.551662133630483"><ele>520.0</ele><time>2026-04-27T16:45:03.004Z</time></trkpt><trkpt lat="39.4069836486883" lon="8.551724619444915"><ele>522.0</ele><time>2026-04-27T16:45:04.004Z</time></trkpt><trkpt lat="39.40692651901164" lon="8.551800988032108"><ele>524.0</ele><time>2026-04-27T16:45:05.004Z</time></trkpt><trkpt lat="39.40685986880965" lon="8.551891736995568"><ele>526.0</ele><time>2026-04-27T16:45:06.004Z</time></trkpt><trkpt lat="39.40678983654446" lon="8.551980297782805"><ele>528.0</ele><time>2026-04-27T16:45:07.004Z</time></trkpt><trkpt lat="39.40673592423729" lon="8.55204992253036"><ele>528.0</ele><time>2026-04-27T16:45:08.004Z</time></trkpt><trkpt lat="39.40667983273899" lon="8.55211952245352"><ele>528.0</ele><time>2026-04-27T16:45:09.004Z</time></trkpt><trkpt lat="39.40661786202218" lon="8.552164389567647"><ele>528.0</ele><time>2026-04-27T16:45:10.004Z</time></trkpt><trkpt lat="39.40650689991117" lon="8.552211155407774"><ele>528.0</ele><time>2026-04-27T16:45:12.004Z</time></trkpt><trkpt lat="39.406428238956245" lon="8.552295869746308"><ele>528.0</ele><time>2026-04-27T16:45:14.004Z</time></trkpt><trkpt lat="39.4063519720213" lon="8.552442998440533"><ele>528.0</ele><time>2026-04-27T16:45:16.004Z</time></trkpt><trkpt lat="39.406313575593" lon="8.552510242291238"><ele>528.0</ele><time>2026-04-27T16:45:17.004Z</time></trkpt><trkpt lat="39.40625101321172" lon="8.552529476939611"><ele>528.0</ele><time>2026-04-27T16:45:19.004Z</time></trkpt><trkpt lat="39.40625223825783" lon="8.552424158946117"><ele>528.0</ele><time>2026-04-27T16:45:21.004Z</time></trkpt><trkpt lat="39.406300144949434" lon="8.552302337810707"><ele>528.0</ele><time>2026-04-27T16:45:23.004Z</time></trkpt><trkpt lat="39.40631210266484" lon="8.55221086716706"><ele>528.0</ele><time>2026-04-27T16:45:24.004Z</time></trkpt><trkpt lat="39.406356413802996" lon="8.552067411750933"><ele>531.1666666666666</ele><time>2026-04-27T16:45:26.004Z</time></trkpt><trkpt lat="39.40639561230007" lon="8.551959171084938"><ele>534.3333333333334</ele><time>2026-04-27T16:45:27.004Z</time></trkpt><trkpt lat="39.40645117795473" lon="8.551871200571364"><ele>537.5</ele><time>2026-04-27T16:45:28.004Z</time></trkpt><trkpt lat="39.40650400389033" lon="8.551791612610632"><ele>540.6666666666667</ele><time>2026-04-27T16:45:29.004Z</time></trkpt><trkpt lat="39.406556906521345" lon="8.551715506283927"><ele>543.8333333333334</ele><time>2026-04-27T16:45:30.004Z</time></trkpt><trkpt lat="39.40662081519986" lon="8.551622941184409"><ele>547.0</ele><time>2026-04-27T16:45:32.004Z</time></trkpt><trkpt lat="39.40655009133487" lon="8.55161750396528"><ele>547.0</ele><time>2026-04-27T16:46:37.005Z</time></trkpt><trkpt lat="39.4064936579187" lon="8.551669956268885"><ele>547.0</ele><time>2026-04-27T16:46:39.005Z</time></trkpt><trkpt lat="39.406435271391814" lon="8.551720069874817"><ele>547.0</ele><time>2026-04-27T16:46:41.005Z</time></trkpt><trkpt lat="39.40636763423587" lon="8.551785573776836"><ele>547.0</ele><time>2026-04-27T16:46:43.005Z</time></trkpt><trkpt lat="39.406300839484175" lon="8.55183418022816"><ele>547.0</ele><time>2026-04-27T16:46:45.005Z</time></trkpt><trkpt lat="39.40621209356913" lon="8.551902405392372"><ele>547.0</ele><time>2026-04-27T16:46:47.005Z</time></trkpt><trkpt lat="39.406134226023326" lon="8.551969687944526"><ele>551.8000000000001</ele><time>2026-04-27T16:46:49.005Z</time></trkpt><trkpt lat="39.40606150970271" lon="8.552017318656043"><ele>556.6</ele><time>2026-04-27T16:46:51.005Z</time></trkpt><trkpt lat="39.40598434777465" lon="8.552093599136256"><ele>561.4000000000001</ele><time>2026-04-27T16:46:53.005Z</time></trkpt><trkpt lat="39.40591017319987" lon="8.552216480518664"><ele>566.2</ele><time>2026-04-27T16:46:55.005Z</time></trkpt><trkpt lat="39.405824079245406" lon="8.552303261961661"><ele>571.0</ele><time>2026-04-27T16:46:57.005Z</time></trkpt><trkpt lat="39.405745884392715" lon="8.552379275810651"><ele>571.0</ele><time>2026-04-27T16:46:59.005Z</time></trkpt><trkpt lat="39.40565273518637" lon="8.552483703752465"><ele>571.0</ele><time>2026-04-27T16:47:01.005Z</time></trkpt><trkpt lat="39.40556033229067" lon="8.552584879509807"><ele>571.0</ele><time>2026-04-27T16:47:03.005Z</time></trkpt><trkpt lat="39.405515583851475" lon="8.552644078756302"><ele>571.0</ele><time>2026-04-27T16:47:04.005Z</time></trkpt><trkpt lat="39.40541870126141" lon="8.552747799733442"><ele>571.0</ele><time>2026-04-27T16:47:06.005Z</time></trkpt><trkpt lat="39.40536732000098" lon="8.552799182078568"><ele>573.3333333333334</ele><time>2026-04-27T16:47:07.005Z</time></trkpt><trkpt lat="39.405313864971795" lon="8.552867120149608"><ele>575.6666666666667</ele><time>2026-04-27T16:47:08.005Z</time></trkpt><trkpt lat="39.40525803620969" lon="8.552926782578032"><ele>578.0</ele><time>2026-04-27T16:47:09.005Z</time></trkpt><trkpt lat="39.40518266653878" lon="8.55299328944886"><ele>580.3333333333334</ele><time>2026-04-27T16:47:10.005Z</time></trkpt><trkpt lat="39.405107166346795" lon="8.553068867165152"><ele>582.6666666666666</ele><time>2026-04-27T16:47:11.005Z</time></trkpt><trkpt lat="39.40503055561563" lon="8.553148871611198"><ele>585.0</ele><time>2026-04-27T16:47:12.005Z</time></trkpt><trkpt lat="39.40495022543244" lon="8.553228836757533"><ele>585.0</ele><time>2026-04-27T16:47:13.005Z</time></trkpt><trkpt lat="39.404877603178726" lon="8.553319745063337"><ele>585.0</ele><time>2026-04-27T16:47:14.005Z</time></trkpt><trkpt lat="39.40481003578197" lon="8.553427919986818"><ele>585.0</ele><time>2026-04-27T16:47:15.005Z</time></trkpt><trkpt lat="39.4047560691991" lon="8.553521206268183"><ele>585.0</ele><time>2026-04-27T16:47:16.005Z</time></trkpt><trkpt lat="39.404696739926216" lon="8.55360302804744"><ele>585.0</ele><time>2026-04-27T16:47:17.005Z</time></trkpt><trkpt lat="39.40462835211121" lon="8.553673813825801"><ele>588.0</ele><time>2026-04-27T16:47:18.005Z</time></trkpt><trkpt lat="39.404553190127416" lon="8.55372595181051"><ele>591.0</ele><time>2026-04-27T16:47:19.005Z</time></trkpt><trkpt lat="39.40447228237183" lon="8.55379418498317"><ele>594.0</ele><time>2026-04-27T16:47:20.005Z</time></trkpt><trkpt lat="39.4043967457114" lon="8.553861906764169"><ele>597.0</ele><time>2026-04-27T16:47:21.005Z</time></trkpt><trkpt lat="39.404330257222185" lon="8.553931290901538"><ele>600.0</ele><time>2026-04-27T16:47:22.005Z</time></trkpt><trkpt lat="39.40428009461779" lon="8.554017028135767"><ele>603.0</ele><time>2026-04-27T16:47:23.005Z</time></trkpt><trkpt lat="39.40423336020631" lon="8.554114854466711"><ele>603.0</ele><time>2026-04-27T16:47:24.005Z</time></trkpt><trkpt lat="39.404188303099254" lon="8.554218127804377"><ele>603.0</ele><time>2026-04-27T16:47:25.005Z</time></trkpt><trkpt lat="39.404152971370664" lon="8.55431768513163"><ele>603.0</ele><time>2026-04-27T16:47:26.005Z</time></trkpt><trkpt lat="39.40414031658696" lon="8.554412978833483"><ele>603.0</ele><time>2026-04-27T16:47:27.005Z</time></trkpt><trkpt lat="39.404146263775964" lon="8.554496621244047"><ele>603.0</ele><time>2026-04-27T16:47:28.005Z</time></trkpt><trkpt lat="39.4041656409811" lon="8.554609002582206"><ele>603.0</ele><time>2026-04-27T16:47:29.005Z</time></trkpt><trkpt lat="39.40419305322123" lon="8.554719138706838"><ele>601.5</ele><time>2026-04-27T16:47:30.005Z</time></trkpt><trkpt lat="39.404222471370275" lon="8.554824428980485"><ele>600.0</ele><time>2026-04-27T16:47:31.005Z</time></trkpt><trkpt lat="39.40424494143474" lon="8.554912842418121"><ele>598.5</ele><time>2026-04-27T16:47:32.005Z</time></trkpt><trkpt lat="39.404232477994086" lon="8.555036752756491"><ele>597.0</ele><time>2026-04-27T16:47:34.005Z</time></trkpt><trkpt lat="39.40416510191116" lon="8.555118428173971"><ele>595.5</ele><time>2026-04-27T16:47:36.005Z</time></trkpt><trkpt lat="39.40409800444984" lon="8.55510860931538"><ele>594.0</ele><time>2026-04-27T16:47:38.005Z</time></trkpt><trkpt lat="39.40405580748088" lon="8.555029988223701"><ele>594.0</ele><time>2026-04-27T16:47:40.005Z</time></trkpt><trkpt lat="39.404055324078705" lon="8.554918009635648"><ele>594.0</ele><time>2026-04-27T16:47:42.005Z</time></trkpt><trkpt lat="39.40404398713317" lon="8.554827429450796"><ele>594.0</ele><time>2026-04-27T16:47:44.006Z</time></trkpt><trkpt lat="39.40398167337293" lon="8.554751175866123"><ele>594.0</ele><time>2026-04-27T16:47:47.006Z</time></trkpt><trkpt lat="39.40394802030485" lon="8.554680167897454"><ele>594.0</ele><time>2026-04-27T16:47:57.006Z</time></trkpt><trkpt lat="39.4039195702635" lon="8.554769792877835"><ele>594.0</ele><time>2026-04-27T16:48:03.006Z</time></trkpt><trkpt lat="39.40399268124519" lon="8.554814160396528"><ele>594.0</ele><time>2026-04-27T16:48:05.006Z</time></trkpt><trkpt lat="39.40404329770206" lon="8.554879070880812"><ele>594.0</ele><time>2026-04-27T16:48:07.006Z</time></trkpt><trkpt lat="39.404051640838766" lon="8.554978851713793"><ele>594.0</ele><time>2026-04-27T16:48:09.006Z</time></trkpt><trkpt lat="39.404023293076015" lon="8.555082860022578"><ele>594.0</ele><time>2026-04-27T16:48:11.006Z</time></trkpt><trkpt lat="39.40397901542527" lon="8.555171448959506"><ele>594.0</ele><time>2026-04-27T16:48:13.006Z</time></trkpt><trkpt lat="39.40393249713829" lon="8.555284818301983"><ele>594.0</ele><time>2026-04-27T16:48:15.006Z</time></trkpt><trkpt lat="39.40389761639991" lon="8.555357197124223"><ele>594.1666666666666</ele><time>2026-04-27T16:48:16.006Z</time></trkpt><trkpt lat="39.40383085660569" lon="8.555423998492312"><ele>594.3333333333334</ele><time>2026-04-27T16:48:17.006Z</time></trkpt><trkpt lat="39.40380001487702" lon="8.55550837755216"><ele>594.5</ele><time>2026-04-27T16:48:18.006Z</time></trkpt><trkpt lat="39.40375116769469" lon="8.555577578025044"><ele>594.6666666666667</ele><time>2026-04-27T16:48:19.006Z</time></trkpt><trkpt lat="39.403668755133324" lon="8.555685666747001"><ele>594.8333333333334</ele><time>2026-04-27T16:48:21.006Z</time></trkpt><trkpt lat="39.40360262592355" lon="8.55577639041161"><ele>595.0</ele><time>2026-04-27T16:48:23.006Z</time></trkpt><trkpt lat="39.40354585832241" lon="8.555830184134322"><ele>595.0</ele><time>2026-04-27T16:48:25.006Z</time></trkpt><trkpt lat="39.403489315384455" lon="8.555881614538153"><ele>595.0</ele><time>2026-04-27T16:48:27.006Z</time></trkpt><trkpt lat="39.40340913150644" lon="8.555951796452954"><ele>595.0</ele><time>2026-04-27T16:48:29.006Z</time></trkpt><trkpt lat="39.40332637325387" lon="8.556007505290369"><ele>595.0</ele><time>2026-04-27T16:48:31.006Z</time></trkpt><trkpt lat="39.403265409525744" lon="8.556050594605596"><ele>595.0</ele><time>2026-04-27T16:48:33.006Z</time></trkpt><trkpt lat="39.40318408528308" lon="8.556033755404552"><ele>595.0</ele><time>2026-04-27T16:48:37.006Z</time></trkpt><trkpt lat="39.40311241505755" lon="8.55597334735529"><ele>595.0</ele><time>2026-04-27T16:48:40.006Z</time></trkpt><trkpt lat="39.403068877078724" lon="8.555893166795165"><ele>595.0</ele><time>2026-04-27T16:48:42.006Z</time></trkpt><trkpt lat="39.403021707600814" lon="8.555748451326565"><ele>595.0</ele><time>2026-04-27T16:48:44.006Z</time></trkpt><trkpt lat="39.40298228851261" lon="8.555662354100122"><ele>595.0</ele><time>2026-04-27T16:48:45.006Z</time></trkpt><trkpt lat="39.40294176834519" lon="8.555569929973098"><ele>595.0</ele><time>2026-04-27T16:48:46.006Z</time></trkpt><trkpt lat="39.40290223103837" lon="8.555481251038334"><ele>595.0</ele><time>2026-04-27T16:48:47.006Z</time></trkpt><trkpt lat="39.402856723464936" lon="8.555386543032709"><ele>598.0</ele><time>2026-04-27T16:48:48.006Z</time></trkpt><trkpt lat="39.40281086397284" lon="8.555299638929002"><ele>601.0</ele><time>2026-04-27T16:48:49.006Z</time></trkpt><trkpt lat="39.4027605893844" lon="8.555242404310142"><ele>604.0</ele><time>2026-04-27T16:48:50.006Z</time></trkpt><trkpt lat="39.402644370198644" lon="8.555172785369901"><ele>607.0</ele><time>2026-04-27T16:48:52.006Z</time></trkpt><trkpt lat="39.40258198105335" lon="8.555150685163817"><ele>610.0</ele><time>2026-04-27T16:48:53.006Z</time></trkpt><trkpt lat="39.40250616364687" lon="8.555138878079568"><ele>613.0</ele><time>2026-04-27T16:48:54.006Z</time></trkpt><trkpt lat="39.40242267536965" lon="8.555137924267612"><ele>613.0</ele><time>2026-04-27T16:48:55.006Z</time></trkpt><trkpt lat="39.402340802521614" lon="8.555139890124593"><ele>613.0</ele><time>2026-04-27T16:48:56.006Z</time></trkpt><trkpt lat="39.402272395053345" lon="8.555155040555086"><ele>613.0</ele><time>2026-04-27T16:48:57.006Z</time></trkpt><trkpt lat="39.4021851978386" lon="8.5551755768392"><ele>613.0</ele><time>2026-04-27T16:48:58.006Z</time></trkpt><trkpt lat="39.402093104367566" lon="8.555194544212283"><ele>613.0</ele><time>2026-04-27T16:48:59.006Z</time></trkpt><trkpt lat="39.402011282799734" lon="8.555236293372168"><ele>613.0</ele><time>2026-04-27T16:49:00.006Z</time></trkpt><trkpt lat="39.40192972685541" lon="8.555281274542521"><ele>611.8333333333334</ele><time>2026-04-27T16:49:01.006Z</time></trkpt><trkpt lat="39.40185447451326" lon="8.55532313327098"><ele>610.6666666666667</ele><time>2026-04-27T16:49:02.006Z</time></trkpt><trkpt lat="39.40178415749183" lon="8.555346251673994"><ele>609.5</ele><time>2026-04-27T16:49:03.006Z</time></trkpt><trkpt lat="39.40170718770029" lon="8.555377904826878"><ele>608.3333333333334</ele><time>2026-04-27T16:49:04.006Z</time></trkpt><trkpt lat="39.40163517532759" lon="8.555417207565087"><ele>607.1666666666666</ele><time>2026-04-27T16:49:05.006Z</time></trkpt><trkpt lat="39.401572596640044" lon="8.555477208122483"><ele>606.0</ele><time>2026-04-27T16:49:06.006Z</time></trkpt><trkpt lat="39.40150043200157" lon="8.55555681896794"><ele>606.0</ele><time>2026-04-27T16:49:07.006Z</time></trkpt><trkpt lat="39.40142691634922" lon="8.555612395978011"><ele>606.0</ele><time>2026-04-27T16:49:08.006Z</time></trkpt><trkpt lat="39.40135732551083" lon="8.555676157237748"><ele>606.0</ele><time>2026-04-27T16:49:09.006Z</time></trkpt><trkpt lat="39.40127414345169" lon="8.555729924490633"><ele>606.0</ele><time>2026-04-27T16:49:10.006Z</time></trkpt><trkpt lat="39.401189672966666" lon="8.555792181208888"><ele>606.0</ele><time>2026-04-27T16:49:11.006Z</time></trkpt><trkpt lat="39.401111027782854" lon="8.55583278805051"><ele>606.0</ele><time>2026-04-27T16:49:12.006Z</time></trkpt><trkpt lat="39.40102644372412" lon="8.555891580985248"><ele>607.8333333333334</ele><time>2026-04-27T16:49:13.006Z</time></trkpt><trkpt lat="39.40094938537602" lon="8.55593105935303"><ele>609.6666666666666</ele><time>2026-04-27T16:49:14.006Z</time></trkpt><trkpt lat="39.40088317458251" lon="8.555968429270017"><ele>611.5</ele><time>2026-04-27T16:49:15.006Z</time></trkpt><trkpt lat="39.40079384591596" lon="8.556010194090424"><ele>613.3333333333333</ele><time>2026-04-27T16:49:16.006Z</time></trkpt><trkpt lat="39.4007033067776" lon="8.556071827632435"><ele>615.1666666666666</ele><time>2026-04-27T16:49:17.006Z</time></trkpt><trkpt lat="39.40062837774704" lon="8.556114428781335"><ele>617.0</ele><time>2026-04-27T16:49:18.006Z</time></trkpt><trkpt lat="39.400549969042196" lon="8.556132293612645"><ele>619.8000000000001</ele><time>2026-04-27T16:49:19.006Z</time></trkpt><trkpt lat="39.400455735460994" lon="8.556130348931912"><ele>622.6</ele><time>2026-04-27T16:49:20.006Z</time></trkpt><trkpt lat="39.40036694420564" lon="8.556124408076986"><ele>625.4000000000001</ele><time>2026-04-27T16:49:21.006Z</time></trkpt><trkpt lat="39.4002914239826" lon="8.556128838619472"><ele>628.2</ele><time>2026-04-27T16:49:22.006Z</time></trkpt><trkpt lat="39.400204437514965" lon="8.55616414138169"><ele>631.0</ele><time>2026-04-27T16:49:24.007Z</time></trkpt><trkpt lat="39.40017187521142" lon="8.556335064027236"><ele>623.8333333333334</ele><time>2026-04-27T16:49:26.007Z</time></trkpt><trkpt lat="39.40018603006771" lon="8.55644930594336"><ele>616.6666666666667</ele><time>2026-04-27T16:49:27.007Z</time></trkpt><trkpt lat="39.40021309649631" lon="8.556557200611106"><ele>609.5</ele><time>2026-04-27T16:49:28.007Z</time></trkpt><trkpt lat="39.40025384450232" lon="8.556673833416756"><ele>602.3333333333334</ele><time>2026-04-27T16:49:29.007Z</time></trkpt><trkpt lat="39.40029053277858" lon="8.55677721126958"><ele>595.1666666666666</ele><time>2026-04-27T16:49:30.007Z</time></trkpt><trkpt lat="39.40032011430365" lon="8.556878178934381"><ele>588.0</ele><time>2026-04-27T16:49:31.007Z</time></trkpt><trkpt lat="39.400353051699504" lon="8.556996454507194"><ele>589.1999999999999</ele><time>2026-04-27T16:49:32.007Z</time></trkpt><trkpt lat="39.40039407806363" lon="8.557125831448598"><ele>590.4</ele><time>2026-04-27T16:49:33.007Z</time></trkpt><trkpt lat="39.40043172783645" lon="8.557251958830435"><ele>591.5999999999999</ele><time>2026-04-27T16:49:34.007Z</time></trkpt><trkpt lat="39.40046310380964" lon="8.557382877009168"><ele>592.8</ele><time>2026-04-27T16:49:35.007Z</time></trkpt><trkpt lat="39.400495013976844" lon="8.557509453472637"><ele>594.0</ele><time>2026-04-27T16:49:36.007Z</time></trkpt><trkpt lat="39.4005356224006" lon="8.55763913389649"><ele>594.0</ele><time>2026-04-27T16:49:37.007Z</time></trkpt><trkpt lat="39.40057176197931" lon="8.557753779187918"><ele>594.0</ele><time>2026-04-27T16:49:38.007Z</time></trkpt><trkpt lat="39.400603054495576" lon="8.557867257268793"><ele>594.0</ele><time>2026-04-27T16:49:39.007Z</time></trkpt><trkpt lat="39.40063350767059" lon="8.557992301253817"><ele>594.0</ele><time>2026-04-27T16:49:40.007Z</time></trkpt><trkpt lat="39.4006631509507" lon="8.558109824328499"><ele>594.0</ele><time>2026-04-27T16:49:41.007Z</time></trkpt><trkpt lat="39.40070292514968" lon="8.558229542431304"><ele>592.1666666666666</ele><time>2026-04-27T16:49:42.007Z</time></trkpt><trkpt lat="39.40073592803165" lon="8.558335299798415"><ele>590.3333333333334</ele><time>2026-04-27T16:49:43.007Z</time></trkpt><trkpt lat="39.400784295444645" lon="8.558433074266155"><ele>588.5</ele><time>2026-04-27T16:49:44.007Z</time></trkpt><trkpt lat="39.40083316651253" lon="8.558511114014815"><ele>586.6666666666667</ele><time>2026-04-27T16:49:45.007Z</time></trkpt><trkpt lat="39.40086351306663" lon="8.558590508414364"><ele>584.8333333333334</ele><time>2026-04-27T16:49:46.007Z</time></trkpt><trkpt lat="39.400889365943925" lon="8.558691617226161"><ele>583.0</ele><time>2026-04-27T16:49:47.007Z</time></trkpt><trkpt lat="39.40091330646508" lon="8.558788949558444"><ele>581.3333333333334</ele><time>2026-04-27T16:49:48.007Z</time></trkpt><trkpt lat="39.4009444237241" lon="8.558881186331053"><ele>579.6666666666667</ele><time>2026-04-27T16:49:49.007Z</time></trkpt><trkpt lat="39.40098006922734" lon="8.558985835553669"><ele>578.0</ele><time>2026-04-27T16:49:50.007Z</time></trkpt><trkpt lat="39.40101931777569" lon="8.559074209545765"><ele>576.3333333333334</ele><time>2026-04-27T16:49:51.007Z</time></trkpt><trkpt lat="39.40106175940166" lon="8.559143642324077"><ele>574.6666666666666</ele><time>2026-04-27T16:49:52.007Z</time></trkpt><trkpt lat="39.401157407948254" lon="8.559248645684107"><ele>573.0</ele><time>2026-04-27T16:49:54.007Z</time></trkpt><trkpt lat="39.40123882827302" lon="8.559346422045325"><ele>573.0</ele><time>2026-04-27T16:49:56.007Z</time></trkpt><trkpt lat="39.4012570524065" lon="8.559525506476275"><ele>573.0</ele><time>2026-04-27T16:49:58.007Z</time></trkpt><trkpt lat="39.40123815072506" lon="8.559621995116062"><ele>573.0</ele><time>2026-04-27T16:49:59.007Z</time></trkpt><trkpt lat="39.40120822419012" lon="8.559713521787536"><ele>573.0</ele><time>2026-04-27T16:50:00.007Z</time></trkpt><trkpt lat="39.401154583381874" lon="8.55981901010084"><ele>573.0</ele><time>2026-04-27T16:50:02.007Z</time></trkpt><trkpt lat="39.401086289668854" lon="8.55983405794227"><ele>572.6</ele><time>2026-04-27T16:50:04.007Z</time></trkpt><trkpt lat="39.40099573232795" lon="8.559821054456826"><ele>572.1999999999999</ele><time>2026-04-27T16:50:07.007Z</time></trkpt><trkpt lat="39.400935558954075" lon="8.559889773721133"><ele>571.8</ele><time>2026-04-27T16:50:09.007Z</time></trkpt><trkpt lat="39.400865443989694" lon="8.560014603291515"><ele>571.4</ele><time>2026-04-27T16:50:11.007Z</time></trkpt><trkpt lat="39.40083133128357" lon="8.5600863425762"><ele>571.0</ele><time>2026-04-27T16:50:12.007Z</time></trkpt><trkpt lat="39.4007745580273" lon="8.560217866310907"><ele>571.0</ele><time>2026-04-27T16:50:14.007Z</time></trkpt><trkpt lat="39.40074177336236" lon="8.56035642241891"><ele>571.0</ele><time>2026-04-27T16:50:16.007Z</time></trkpt><trkpt lat="39.40075037243299" lon="8.560442228381484"><ele>571.0</ele><time>2026-04-27T16:50:17.007Z</time></trkpt><trkpt lat="39.400763630310735" lon="8.560553591328308"><ele>571.0</ele><time>2026-04-27T16:50:19.007Z</time></trkpt><trkpt lat="39.40072897052239" lon="8.560663727759126"><ele>571.0</ele><time>2026-04-27T16:50:21.007Z</time></trkpt><trkpt lat="39.400660388278155" lon="8.560776333232619"><ele>571.8</ele><time>2026-04-27T16:50:23.007Z</time></trkpt><trkpt lat="39.40056127132804" lon="8.560842783957424"><ele>572.6</ele><time>2026-04-27T16:50:25.007Z</time></trkpt><trkpt lat="39.400503197556844" lon="8.560886616805329"><ele>573.4</ele><time>2026-04-27T16:50:26.007Z</time></trkpt><trkpt lat="39.40040389084576" lon="8.560940765166999"><ele>574.2</ele><time>2026-04-27T16:50:28.007Z</time></trkpt><trkpt lat="39.40032418219711" lon="8.560976957599882"><ele>575.0</ele><time>2026-04-27T16:50:30.007Z</time></trkpt><trkpt lat="39.400233851796365" lon="8.561035061192966"><ele>571.6666666666666</ele><time>2026-04-27T16:50:32.007Z</time></trkpt><trkpt lat="39.40016758474713" lon="8.561077374010605"><ele>568.3333333333333</ele><time>2026-04-27T16:50:34.007Z</time></trkpt><trkpt lat="39.40012934988374" lon="8.561001639354682"><ele>565.0</ele><time>2026-04-27T16:50:39.007Z</time></trkpt><trkpt lat="39.4001955525626" lon="8.560959228001702"><ele>561.6666666666666</ele><time>2026-04-27T16:50:41.007Z</time></trkpt><trkpt lat="39.400282292368495" lon="8.560870702289069"><ele>558.3333333333334</ele><time>2026-04-27T16:50:43.007Z</time></trkpt><trkpt lat="39.40033274784857" lon="8.560769011819346"><ele>555.0</ele><time>2026-04-27T16:50:45.007Z</time></trkpt><trkpt lat="39.40035540188414" lon="8.560692407032931"><ele>555.0</ele><time>2026-04-27T16:50:46.007Z</time></trkpt><trkpt lat="39.400375130924225" lon="8.56060934279085"><ele>555.0</ele><time>2026-04-27T16:50:47.007Z</time></trkpt><trkpt lat="39.400388827361475" lon="8.560526805962708"><ele>555.0</ele><time>2026-04-27T16:50:48.007Z</time></trkpt><trkpt lat="39.40039002230301" lon="8.560434655365704"><ele>555.0</ele><time>2026-04-27T16:50:49.007Z</time></trkpt><trkpt lat="39.400391827968065" lon="8.560319743260198"><ele>555.0</ele><time>2026-04-27T16:50:50.007Z</time></trkpt><trkpt lat="39.40039652504614" lon="8.560222781087038"><ele>555.0</ele><time>2026-04-27T16:50:51.007Z</time></trkpt><trkpt lat="39.4004175760476" lon="8.5601080960639"><ele>553.6</ele><time>2026-04-27T16:50:52.007Z</time></trkpt><trkpt lat="39.40045372099467" lon="8.559997259381646"><ele>552.2</ele><time>2026-04-27T16:50:53.007Z</time></trkpt><trkpt lat="39.400497176752665" lon="8.559867957245604"><ele>550.8</ele><time>2026-04-27T16:50:54.007Z</time></trkpt><trkpt lat="39.40053667441897" lon="8.55973353108997"><ele>549.4</ele><time>2026-04-27T16:50:55.007Z</time></trkpt><trkpt lat="39.40057009075434" lon="8.559600605787463"><ele>548.0</ele><time>2026-04-27T16:50:56.007Z</time></trkpt><trkpt lat="39.400592230665005" lon="8.559477582382987"><ele>548.0</ele><time>2026-04-27T16:50:57.007Z</time></trkpt><trkpt lat="39.40060429017433" lon="8.559364969621365"><ele>548.0</ele><time>2026-04-27T16:50:58.007Z</time></trkpt><trkpt lat="39.40060748200614" lon="8.559252656646175"><ele>548.0</ele><time>2026-04-27T16:50:59.007Z</time></trkpt><trkpt lat="39.400596584625895" lon="8.55915845111334"><ele>548.0</ele><time>2026-04-27T16:51:00.007Z</time></trkpt><trkpt lat="39.40057160513765" lon="8.559080880074173"><ele>548.0</ele><time>2026-04-27T16:51:01.007Z</time></trkpt><trkpt lat="39.40049348564293" lon="8.558968460986137"><ele>548.0</ele><time>2026-04-27T16:51:03.008Z</time></trkpt><trkpt lat="39.40042650033897" lon="8.558928002109068"><ele>548.0</ele><time>2026-04-27T16:51:04.008Z</time></trkpt><trkpt lat="39.40034853886998" lon="8.558883873301623"><ele>548.0</ele><time>2026-04-27T16:51:05.008Z</time></trkpt><trkpt lat="39.40027867507758" lon="8.558831619488668"><ele>548.0</ele><time>2026-04-27T16:51:06.008Z</time></trkpt><trkpt lat="39.40021919740234" lon="8.55876904310913"><ele>548.0</ele><time>2026-04-27T16:51:07.008Z</time></trkpt><trkpt lat="39.40016238379338" lon="8.558701467410213"><ele>548.0</ele><time>2026-04-27T16:51:08.008Z</time></trkpt><trkpt lat="39.400105329318585" lon="8.558640997099662"><ele>548.0</ele><time>2026-04-27T16:51:09.008Z</time></trkpt><trkpt lat="39.400046446155244" lon="8.558587503165068"><ele>547.6666666666666</ele><time>2026-04-27T16:51:10.008Z</time></trkpt><trkpt lat="39.39998405306829" lon="8.558545770891373"><ele>547.3333333333333</ele><time>2026-04-27T16:51:11.008Z</time></trkpt><trkpt lat="39.3999094946554" lon="8.558512938749411"><ele>547.0</ele><time>2026-04-27T16:51:12.008Z</time></trkpt><trkpt lat="39.399834539004395" lon="8.558493821354036"><ele>546.6666666666666</ele><time>2026-04-27T16:51:13.008Z</time></trkpt><trkpt lat="39.399755079330475" lon="8.558467132088053"><ele>546.3333333333334</ele><time>2026-04-27T16:51:14.008Z</time></trkpt><trkpt lat="39.39966793832601" lon="8.558438017888971"><ele>546.0</ele><time>2026-04-27T16:51:15.008Z</time></trkpt><trkpt lat="39.399604053486556" lon="8.558401486164875"><ele>546.0</ele><time>2026-04-27T16:51:16.008Z</time></trkpt><trkpt lat="39.39954090745726" lon="8.558361032255474"><ele>546.0</ele><time>2026-04-27T16:51:17.008Z</time></trkpt><trkpt lat="39.39945203377823" lon="8.558242922627734"><ele>546.0</ele><time>2026-04-27T16:51:19.008Z</time></trkpt><trkpt lat="39.39942174251798" lon="8.55816033861966"><ele>546.0</ele><time>2026-04-27T16:51:20.008Z</time></trkpt><trkpt lat="39.399398473827915" lon="8.558065131224938"><ele>546.0</ele><time>2026-04-27T16:51:21.008Z</time></trkpt><trkpt lat="39.399383008948746" lon="8.557939140402434"><ele>546.0</ele><time>2026-04-27T16:51:22.008Z</time></trkpt><trkpt lat="39.39936692501887" lon="8.557819536096888"><ele>546.2</ele><time>2026-04-27T16:51:23.008Z</time></trkpt><trkpt lat="39.399332612894845" lon="8.55770616874071"><ele>546.4000000000001</ele><time>2026-04-27T16:51:24.008Z</time></trkpt><trkpt lat="39.399286732115904" lon="8.557604290583066"><ele>546.6</ele><time>2026-04-27T16:51:25.008Z</time></trkpt><trkpt lat="39.39922977446133" lon="8.55751111064628"><ele>546.8000000000001</ele><time>2026-04-27T16:51:26.008Z</time></trkpt><trkpt lat="39.39915670561665" lon="8.55741355430696"><ele>547.0</ele><time>2026-04-27T16:51:27.008Z</time></trkpt><trkpt lat="39.39907560918353" lon="8.557313921030582"><ele>547.0</ele><time>2026-04-27T16:51:28.008Z</time></trkpt><trkpt lat="39.39899419978732" lon="8.557219727962634"><ele>547.0</ele><time>2026-04-27T16:51:29.008Z</time></trkpt><trkpt lat="39.39891982318859" lon="8.557120552177594"><ele>547.0</ele><time>2026-04-27T16:51:30.008Z</time></trkpt><trkpt lat="39.398857262150464" lon="8.557032958123415"><ele>547.0</ele><time>2026-04-27T16:51:31.008Z</time></trkpt><trkpt lat="39.398792016105965" lon="8.556959106567291"><ele>547.0</ele><time>2026-04-27T16:51:32.008Z</time></trkpt><trkpt lat="39.39872719231987" lon="8.556893095737752"><ele>547.1666666666667</ele><time>2026-04-27T16:51:33.008Z</time></trkpt><trkpt lat="39.39865194599946" lon="8.556832977921122"><ele>547.3333333333334</ele><time>2026-04-27T16:51:34.008Z</time></trkpt><trkpt lat="39.39857155442088" lon="8.556772791312765"><ele>547.5</ele><time>2026-04-27T16:51:35.008Z</time></trkpt><trkpt lat="39.39849343716516" lon="8.556725532473493"><ele>547.6666666666666</ele><time>2026-04-27T16:51:36.008Z</time></trkpt><trkpt lat="39.39842473337106" lon="8.55668147905372"><ele>547.8333333333333</ele><time>2026-04-27T16:51:37.008Z</time></trkpt><trkpt lat="39.39835385416531" lon="8.556613951682278"><ele>548.0</ele><time>2026-04-27T16:51:38.008Z</time></trkpt><trkpt lat="39.398296796486626" lon="8.556519410630393"><ele>548.0</ele><time>2026-04-27T16:51:39.008Z</time></trkpt><trkpt lat="39.398257049835394" lon="8.556412634920562"><ele>548.0</ele><time>2026-04-27T16:51:40.008Z</time></trkpt><trkpt lat="39.398231220787466" lon="8.55629578296222"><ele>548.0</ele><time>2026-04-27T16:51:41.008Z</time></trkpt><trkpt lat="39.3981472008411" lon="8.556152048983495"><ele>548.0</ele><time>2026-04-27T16:51:42.008Z</time></trkpt><trkpt lat="39.39808632781472" lon="8.556011325373307"><ele>548.0</ele><time>2026-04-27T16:51:43.008Z</time></trkpt><trkpt lat="39.398030978492834" lon="8.555882799490746"><ele>548.6</ele><time>2026-04-27T16:51:44.008Z</time></trkpt><trkpt lat="39.39798481502711" lon="8.555755012733135"><ele>549.1999999999999</ele><time>2026-04-27T16:51:45.008Z</time></trkpt><trkpt lat="39.397944789131564" lon="8.55561439969449"><ele>549.8</ele><time>2026-04-27T16:51:46.008Z</time></trkpt><trkpt lat="39.397926725853125" lon="8.555481209822174"><ele>550.4</ele><time>2026-04-27T16:51:47.008Z</time></trkpt><trkpt lat="39.39790792718016" lon="8.55533876769621"><ele>551.0</ele><time>2026-04-27T16:51:48.008Z</time></trkpt><trkpt lat="39.397868044113935" lon="8.555171125617807"><ele>549.25</ele><time>2026-04-27T16:51:49.008Z</time></trkpt><trkpt lat="39.397832289014765" lon="8.555004879654545"><ele>547.5</ele><time>2026-04-27T16:51:50.008Z</time></trkpt><trkpt lat="39.397803746499505" lon="8.55484381164594"><ele>545.75</ele><time>2026-04-27T16:51:51.008Z</time></trkpt><trkpt lat="39.39778059033945" lon="8.5546934493633"><ele>544.0</ele><time>2026-04-27T16:51:52.008Z</time></trkpt><trkpt lat="39.397750940296426" lon="8.554536249218804"><ele>544.0</ele><time>2026-04-27T16:51:53.008Z</time></trkpt><trkpt lat="39.39771504854084" lon="8.55439284972983"><ele>544.0</ele><time>2026-04-27T16:51:54.008Z</time></trkpt><trkpt lat="39.39767108846701" lon="8.554273760903163"><ele>544.0</ele><time>2026-04-27T16:51:55.008Z</time></trkpt><trkpt lat="39.397632077228636" lon="8.554165809948316"><ele>544.0</ele><time>2026-04-27T16:51:56.008Z</time></trkpt><trkpt lat="39.39759949541526" lon="8.55408405623702"><ele>544.0</ele><time>2026-04-27T16:51:57.008Z</time></trkpt><trkpt lat="39.39753831189613" lon="8.553990295220567"><ele>544.0</ele><time>2026-04-27T16:51:58.008Z</time></trkpt><trkpt lat="39.39748869646887" lon="8.55389022485239"><ele>544.0</ele><time>2026-04-27T16:51:59.008Z</time></trkpt><trkpt lat="39.39745372961264" lon="8.553770901487836"><ele>544.0</ele><time>2026-04-27T16:52:00.008Z</time></trkpt><trkpt lat="39.39739106120383" lon="8.553657458017833"><ele>544.0</ele><time>2026-04-27T16:52:01.008Z</time></trkpt><trkpt lat="39.397323014612674" lon="8.553539224520199"><ele>544.0</ele><time>2026-04-27T16:52:02.008Z</time></trkpt><trkpt lat="39.39727639225715" lon="8.553468476772723"><ele>543.8333333333334</ele><time>2026-04-27T16:52:03.008Z</time></trkpt><trkpt lat="39.39721395554059" lon="8.553401480132681"><ele>543.6666666666667</ele><time>2026-04-27T16:52:04.008Z</time></trkpt><trkpt lat="39.397171507116916" lon="8.553335655500211"><ele>543.5</ele><time>2026-04-27T16:52:05.008Z</time></trkpt><trkpt lat="39.39714518059385" lon="8.553232910150626"><ele>543.3333333333334</ele><time>2026-04-27T16:52:07.008Z</time></trkpt><trkpt lat="39.39715384179352" lon="8.553076407425205"><ele>543.1666666666666</ele><time>2026-04-27T16:52:09.008Z</time></trkpt><trkpt lat="39.39721286098562" lon="8.552982272175221"><ele>543.0</ele><time>2026-04-27T16:52:10.008Z</time></trkpt><trkpt lat="39.39728339762373" lon="8.552894376756086"><ele>539.1999999999999</ele><time>2026-04-27T16:52:11.008Z</time></trkpt><trkpt lat="39.39735103041127" lon="8.552796040274735"><ele>535.4</ele><time>2026-04-27T16:52:12.008Z</time></trkpt><trkpt lat="39.39741244198972" lon="8.552676781109875"><ele>531.5999999999999</ele><time>2026-04-27T16:52:13.008Z</time></trkpt><trkpt lat="39.397463673261306" lon="8.552593297217674"><ele>527.8</ele><time>2026-04-27T16:52:14.008Z</time></trkpt><trkpt lat="39.39751140712185" lon="8.552454590271303"><ele>524.0</ele><time>2026-04-27T16:52:16.008Z</time></trkpt><trkpt lat="39.39751368236133" lon="8.552364133349114"><ele>524.0</ele><time>2026-04-27T16:52:17.008Z</time></trkpt><trkpt lat="39.39749544767997" lon="8.552256888071046"><ele>524.0</ele><time>2026-04-27T16:52:18.008Z</time></trkpt><trkpt lat="39.397464928079295" lon="8.552139903432298"><ele>524.0</ele><time>2026-04-27T16:52:19.008Z</time></trkpt><trkpt lat="39.397423706285224" lon="8.552021195707852"><ele>524.0</ele><time>2026-04-27T16:52:20.008Z</time></trkpt><trkpt lat="39.3973789280828" lon="8.551885962750074"><ele>524.0</ele><time>2026-04-27T16:52:21.008Z</time></trkpt><trkpt lat="39.397327297122416" lon="8.551753979022404"><ele>524.0</ele><time>2026-04-27T16:52:22.008Z</time></trkpt><trkpt lat="39.39728059814244" lon="8.551653757698011"><ele>524.0</ele><time>2026-04-27T16:52:23.008Z</time></trkpt><trkpt lat="39.39724236917238" lon="8.551547963877036"><ele>524.0</ele><time>2026-04-27T16:52:24.008Z</time></trkpt><trkpt lat="39.39721632868352" lon="8.551469806671783"><ele>524.0</ele><time>2026-04-27T16:52:25.008Z</time></trkpt><trkpt lat="39.39712364938192" lon="8.551400122952453"><ele>524.0</ele><time>2026-04-27T16:52:26.008Z</time></trkpt><trkpt lat="39.39703079339061" lon="8.551299581546246"><ele>519.5</ele><time>2026-04-27T16:52:27.008Z</time></trkpt><trkpt lat="39.39693212090936" lon="8.551188120813642"><ele>515.0</ele><time>2026-04-27T16:52:28.008Z</time></trkpt><trkpt lat="39.396820643856415" lon="8.551055514142021"><ele>510.5</ele><time>2026-04-27T16:52:29.008Z</time></trkpt><trkpt lat="39.3967051692632" lon="8.550922544759912"><ele>506.0</ele><time>2026-04-27T16:52:30.008Z</time></trkpt><trkpt lat="39.39659474768197" lon="8.550800065975501"><ele>506.0</ele><time>2026-04-27T16:52:31.008Z</time></trkpt><trkpt lat="39.39645374592846" lon="8.550682400879525"><ele>506.0</ele><time>2026-04-27T16:52:32.008Z</time></trkpt><trkpt lat="39.39636972077523" lon="8.550582228931543"><ele>506.0</ele><time>2026-04-27T16:52:33.008Z</time></trkpt><trkpt lat="39.39626902702479" lon="8.550484950170425"><ele>506.0</ele><time>2026-04-27T16:52:34.008Z</time></trkpt><trkpt lat="39.39616279543248" lon="8.550375277305193"><ele>502.25</ele><time>2026-04-27T16:52:35.008Z</time></trkpt><trkpt lat="39.396055575012895" lon="8.55028090555602"><ele>498.5</ele><time>2026-04-27T16:52:36.008Z</time></trkpt><trkpt lat="39.39595928259874" lon="8.550177740807372"><ele>494.75</ele><time>2026-04-27T16:52:37.008Z</time></trkpt><trkpt lat="39.395873118934595" lon="8.550078680074986"><ele>491.0</ele><time>2026-04-27T16:52:38.008Z</time></trkpt><trkpt lat="39.39580903653878" lon="8.549965313006574"><ele>491.0</ele><time>2026-04-27T16:52:39.008Z</time></trkpt><trkpt lat="39.39574866534679" lon="8.549844403635376"><ele>491.0</ele><time>2026-04-27T16:52:40.008Z</time></trkpt><trkpt lat="39.395711887355134" lon="8.549704624501059"><ele>491.0</ele><time>2026-04-27T16:52:41.009Z</time></trkpt><trkpt lat="39.39566342567711" lon="8.549548192240968"><ele>491.0</ele><time>2026-04-27T16:52:42.009Z</time></trkpt><trkpt lat="39.39561479825747" lon="8.549422919537056"><ele>490.66666666666663</ele><time>2026-04-27T16:52:43.009Z</time></trkpt><trkpt lat="39.395551958352875" lon="8.54931386989297"><ele>490.3333333333333</ele><time>2026-04-27T16:52:44.009Z</time></trkpt><trkpt lat="39.39550610138053" lon="8.549228272670616"><ele>490.0</ele><time>2026-04-27T16:52:45.009Z</time></trkpt><trkpt lat="39.395450513703864" lon="8.549148650159871"><ele>489.66666666666663</ele><time>2026-04-27T16:52:46.009Z</time></trkpt><trkpt lat="39.395374018378426" lon="8.549088990935957"><ele>489.3333333333333</ele><time>2026-04-27T16:52:47.009Z</time></trkpt><trkpt lat="39.39529069593965" lon="8.54904149046277"><ele>489.0</ele><time>2026-04-27T16:52:48.009Z</time></trkpt><trkpt lat="39.395182665319346" lon="8.549008053525176"><ele>489.0</ele><time>2026-04-27T16:52:49.009Z</time></trkpt><trkpt lat="39.39507038714742" lon="8.54898103695244"><ele>489.0</ele><time>2026-04-27T16:52:50.009Z</time></trkpt><trkpt lat="39.39494647325856" lon="8.548931776532367"><ele>489.0</ele><time>2026-04-27T16:52:51.009Z</time></trkpt><trkpt lat="39.39483863479156" lon="8.548877101301807"><ele>489.0</ele><time>2026-04-27T16:52:52.009Z</time></trkpt><trkpt lat="39.39471760966031" lon="8.548813502536703"><ele>490.79999999999995</ele><time>2026-04-27T16:52:53.009Z</time></trkpt><trkpt lat="39.3946019917743" lon="8.54876154133663"><ele>492.59999999999997</ele><time>2026-04-27T16:52:54.009Z</time></trkpt><trkpt lat="39.394499634382925" lon="8.548749689645916"><ele>494.4</ele><time>2026-04-27T16:52:55.009Z</time></trkpt><trkpt lat="39.39439175802611" lon="8.548749375283762"><ele>496.2</ele><time>2026-04-27T16:52:56.009Z</time></trkpt><trkpt lat="39.39428415553863" lon="8.548762253434385"><ele>498.0</ele><time>2026-04-27T16:52:57.009Z</time></trkpt><trkpt lat="39.39416801972779" lon="8.548781874180827"><ele>498.0</ele><time>2026-04-27T16:52:58.009Z</time></trkpt><trkpt lat="39.39404135543182" lon="8.548797649728133"><ele>498.0</ele><time>2026-04-27T16:52:59.009Z</time></trkpt><trkpt lat="39.39391632781791" lon="8.548808135860197"><ele>498.0</ele><time>2026-04-27T16:53:00.009Z</time></trkpt><trkpt lat="39.393795430013576" lon="8.548820307823428"><ele>498.0</ele><time>2026-04-27T16:53:01.009Z</time></trkpt><trkpt lat="39.3936815601005" lon="8.548831324400371"><ele>499.4</ele><time>2026-04-27T16:53:02.009Z</time></trkpt><trkpt lat="39.393569365848926" lon="8.548839112157927"><ele>500.79999999999995</ele><time>2026-04-27T16:53:03.009Z</time></trkpt><trkpt lat="39.393478195066656" lon="8.548846122977746"><ele>502.2</ele><time>2026-04-27T16:53:04.009Z</time></trkpt><trkpt lat="39.393401269202414" lon="8.54886561271634"><ele>503.6</ele><time>2026-04-27T16:53:05.009Z</time></trkpt><trkpt lat="39.39329785576217" lon="8.548859628845435"><ele>505.0</ele><time>2026-04-27T16:53:07.009Z</time></trkpt><trkpt lat="39.39322225754786" lon="8.548736466623875"><ele>504.57142857142856</ele><time>2026-04-27T16:53:09.009Z</time></trkpt><trkpt lat="39.39320365588825" lon="8.548651411218392"><ele>504.1428571428571</ele><time>2026-04-27T16:53:10.009Z</time></trkpt><trkpt lat="39.39320648546865" lon="8.548558128301721"><ele>503.71428571428567</ele><time>2026-04-27T16:53:11.009Z</time></trkpt><trkpt lat="39.393239906017584" lon="8.548472007775052"><ele>503.2857142857142</ele><time>2026-04-27T16:53:12.009Z</time></trkpt><trkpt lat="39.393282042106804" lon="8.548395943538688"><ele>502.85714285714283</ele><time>2026-04-27T16:53:13.009Z</time></trkpt><trkpt lat="39.39334073584315" lon="8.548325972937226"><ele>502.42857142857133</ele><time>2026-04-27T16:53:14.009Z</time></trkpt><trkpt lat="39.393406688846795" lon="8.548267834400738"><ele>501.99999999999994</ele><time>2026-04-27T16:53:15.009Z</time></trkpt><trkpt lat="39.39348030681287" lon="8.548228209973516"><ele>502.0</ele><time>2026-04-27T16:53:16.009Z</time></trkpt><trkpt lat="39.39355773963456" lon="8.548200092136051"><ele>502.00000000000006</ele><time>2026-04-27T16:53:17.009Z</time></trkpt><trkpt lat="39.39363055291132" lon="8.548171211975959"><ele>502.00000000000006</ele><time>2026-04-27T16:53:18.009Z</time></trkpt><trkpt lat="39.39371494319402" lon="8.54807683516435"><ele>502.0</ele><time>2026-04-27T16:53:20.009Z</time></trkpt><trkpt lat="39.39369624639477" lon="8.547919302601926"><ele>502.0</ele><time>2026-04-27T16:53:22.009Z</time></trkpt><trkpt lat="39.393653886235064" lon="8.547854487840327"><ele>501.6666666666667</ele><time>2026-04-27T16:53:23.009Z</time></trkpt><trkpt lat="39.39359531264298" lon="8.547776040012472"><ele>501.33333333333337</ele><time>2026-04-27T16:53:24.009Z</time></trkpt><trkpt lat="39.393530420992754" lon="8.547689952916462"><ele>501.0</ele><time>2026-04-27T16:53:25.009Z</time></trkpt><trkpt lat="39.39346787488721" lon="8.547600370223613"><ele>500.66666666666663</ele><time>2026-04-27T16:53:26.009Z</time></trkpt><trkpt lat="39.393407874630824" lon="8.547527970054984"><ele>500.3333333333333</ele><time>2026-04-27T16:53:27.009Z</time></trkpt><trkpt lat="39.39336162766437" lon="8.547454974711316"><ele>500.0</ele><time>2026-04-27T16:53:28.009Z</time></trkpt><trkpt lat="39.393321944672024" lon="8.54737590876017"><ele>500.0</ele><time>2026-04-27T16:53:29.009Z</time></trkpt><trkpt lat="39.393285001271636" lon="8.547279694714527"><ele>500.0</ele><time>2026-04-27T16:53:30.009Z</time></trkpt><trkpt lat="39.393239860978085" lon="8.547156951591063"><ele>500.0</ele><time>2026-04-27T16:53:31.009Z</time></trkpt><trkpt lat="39.39319198337258" lon="8.54703729963021"><ele>500.0</ele><time>2026-04-27T16:53:32.009Z</time></trkpt><trkpt lat="39.39315722788863" lon="8.546910976127238"><ele>500.0</ele><time>2026-04-27T16:53:33.009Z</time></trkpt><trkpt lat="39.39313117626173" lon="8.546801802186764"><ele>498.6</ele><time>2026-04-27T16:53:34.009Z</time></trkpt><trkpt lat="39.393128482859524" lon="8.546697412185724"><ele>497.2</ele><time>2026-04-27T16:53:35.009Z</time></trkpt><trkpt lat="39.39314197575242" lon="8.546590172883034"><ele>495.79999999999995</ele><time>2026-04-27T16:53:36.009Z</time></trkpt><trkpt lat="39.39317846800576" lon="8.546480448097709"><ele>494.4</ele><time>2026-04-27T16:53:37.009Z</time></trkpt><trkpt lat="39.3932135446021" lon="8.546361944904064"><ele>493.0</ele><time>2026-04-27T16:53:38.009Z</time></trkpt><trkpt lat="39.393258411377566" lon="8.54624398230411"><ele>493.83333333333337</ele><time>2026-04-27T16:53:39.009Z</time></trkpt><trkpt lat="39.39329326845309" lon="8.546144732118995"><ele>494.6666666666667</ele><time>2026-04-27T16:53:40.009Z</time></trkpt><trkpt lat="39.39332467484635" lon="8.546052717751792"><ele>495.5</ele><time>2026-04-27T16:53:41.009Z</time></trkpt><trkpt lat="39.39332295024014" lon="8.54596842713243"><ele>496.33333333333337</ele><time>2026-04-27T16:53:42.009Z</time></trkpt><trkpt lat="39.39329845412923" lon="8.545883415238816"><ele>497.1666666666667</ele><time>2026-04-27T16:53:43.009Z</time></trkpt><trkpt lat="39.393261802670345" lon="8.545790062617261"><ele>498.0</ele><time>2026-04-27T16:53:44.009Z</time></trkpt><trkpt lat="39.39323720622451" lon="8.545676732602582"><ele>498.0</ele><time>2026-04-27T16:53:45.009Z</time></trkpt><trkpt lat="39.39321156559566" lon="8.545576549870185"><ele>498.0</ele><time>2026-04-27T16:53:46.009Z</time></trkpt><trkpt lat="39.39321659876278" lon="8.545466069698753"><ele>498.0</ele><time>2026-04-27T16:53:47.009Z</time></trkpt><trkpt lat="39.393235230338156" lon="8.545371004509933"><ele>498.0</ele><time>2026-04-27T16:53:48.009Z</time></trkpt><trkpt lat="39.39327567244633" lon="8.545299020165766"><ele>498.0</ele><time>2026-04-27T16:53:49.009Z</time></trkpt><trkpt lat="39.39333453206396" lon="8.545248506481096"><ele>498.0</ele><time>2026-04-27T16:53:50.009Z</time></trkpt><trkpt lat="39.393397060436435" lon="8.545215068331151"><ele>501.1666666666667</ele><time>2026-04-27T16:53:51.009Z</time></trkpt><trkpt lat="39.39343375547868" lon="8.545146649511322"><ele>504.33333333333337</ele><time>2026-04-27T16:53:52.009Z</time></trkpt><trkpt lat="39.39345596258437" lon="8.545065786036545"><ele>507.5</ele><time>2026-04-27T16:53:53.009Z</time></trkpt><trkpt lat="39.39346947886513" lon="8.544968084033172"><ele>510.6666666666667</ele><time>2026-04-27T16:53:54.009Z</time></trkpt><trkpt lat="39.39347392435984" lon="8.544853515623114"><ele>513.8333333333334</ele><time>2026-04-27T16:53:55.009Z</time></trkpt><trkpt lat="39.39348545551429" lon="8.544745244304837"><ele>517.0</ele><time>2026-04-27T16:53:56.009Z</time></trkpt><trkpt lat="39.39351436734189" lon="8.544639880488644"><ele>520.2</ele><time>2026-04-27T16:53:57.009Z</time></trkpt><trkpt lat="39.39354871591191" lon="8.544527957469253"><ele>523.4000000000001</ele><time>2026-04-27T16:53:58.009Z</time></trkpt><trkpt lat="39.39358646879904" lon="8.544415137866505"><ele>526.5999999999999</ele><time>2026-04-27T16:53:59.009Z</time></trkpt><trkpt lat="39.39362464350681" lon="8.544298176143005"><ele>529.8</ele><time>2026-04-27T16:54:00.009Z</time></trkpt><trkpt lat="39.39366453221226" lon="8.544202819816816"><ele>533.0</ele><time>2026-04-27T16:54:01.009Z</time></trkpt><trkpt lat="39.39369478626616" lon="8.544094882913162"><ele>533.0</ele><time>2026-04-27T16:54:02.009Z</time></trkpt><trkpt lat="39.39371002676742" lon="8.543981833575256"><ele>533.0</ele><time>2026-04-27T16:54:03.009Z</time></trkpt><trkpt lat="39.39372516328764" lon="8.543859460498128"><ele>533.0</ele><time>2026-04-27T16:54:04.009Z</time></trkpt><trkpt lat="39.39373531350416" lon="8.543734393439934"><ele>533.0</ele><time>2026-04-27T16:54:05.009Z</time></trkpt><trkpt lat="39.393750992692425" lon="8.543595775819213"><ele>533.0</ele><time>2026-04-27T16:54:06.009Z</time></trkpt><trkpt lat="39.39376821504805" lon="8.54345882129455"><ele>535.6666666666666</ele><time>2026-04-27T16:54:07.009Z</time></trkpt><trkpt lat="39.393791574995724" lon="8.543324233429374"><ele>538.3333333333333</ele><time>2026-04-27T16:54:08.009Z</time></trkpt><trkpt lat="39.3938209435116" lon="8.543190709929403"><ele>541.0</ele><time>2026-04-27T16:54:09.009Z</time></trkpt><trkpt lat="39.39385096160247" lon="8.543075510346561"><ele>543.6666666666666</ele><time>2026-04-27T16:54:10.009Z</time></trkpt><trkpt lat="39.39388707710218" lon="8.542996348257429"><ele>546.3333333333334</ele><time>2026-04-27T16:54:11.009Z</time></trkpt><trkpt lat="39.393939295636265" lon="8.542942153520208"><ele>549.0</ele><time>2026-04-27T16:54:12.009Z</time></trkpt><trkpt lat="39.3940054336199" lon="8.54290448980019"><ele>545.1666666666666</ele><time>2026-04-27T16:54:13.009Z</time></trkpt><trkpt lat="39.39408181139257" lon="8.542867639323662"><ele>541.3333333333334</ele><time>2026-04-27T16:54:14.009Z</time></trkpt><trkpt lat="39.39416003706126" lon="8.542818587591686"><ele>537.5</ele><time>2026-04-27T16:54:15.009Z</time></trkpt><trkpt lat="39.394222036945294" lon="8.542742350198495"><ele>533.6666666666667</ele><time>2026-04-27T16:54:16.009Z</time></trkpt><trkpt lat="39.3942631683975" lon="8.542652582334016"><ele>529.8333333333334</ele><time>2026-04-27T16:54:17.009Z</time></trkpt><trkpt lat="39.39428241645846" lon="8.542574573535585"><ele>526.0</ele><time>2026-04-27T16:54:18.009Z</time></trkpt><trkpt lat="39.39425951445466" lon="8.542417662932953"><ele>526.0</ele><time>2026-04-27T16:54:20.01Z</time></trkpt><trkpt lat="39.39422265012333" lon="8.542311217602949"><ele>526.0</ele><time>2026-04-27T16:54:21.01Z</time></trkpt><trkpt lat="39.39418222656229" lon="8.54221689926051"><ele>526.0</ele><time>2026-04-27T16:54:22.01Z</time></trkpt><trkpt lat="39.39414385064593" lon="8.542104365587008"><ele>526.0</ele><time>2026-04-27T16:54:23.01Z</time></trkpt><trkpt lat="39.39410887558762" lon="8.541985350663836"><ele>526.0</ele><time>2026-04-27T16:54:24.01Z</time></trkpt><trkpt lat="39.39406759152873" lon="8.541850420050737"><ele>528.4</ele><time>2026-04-27T16:54:25.01Z</time></trkpt><trkpt lat="39.39402704935939" lon="8.541719215454238"><ele>530.8</ele><time>2026-04-27T16:54:26.01Z</time></trkpt><trkpt lat="39.39399483554326" lon="8.541622844286007"><ele>533.1999999999999</ele><time>2026-04-27T16:54:27.01Z</time></trkpt><trkpt lat="39.393964068688945" lon="8.541547877675836"><ele>535.6</ele><time>2026-04-27T16:54:28.01Z</time></trkpt><trkpt lat="39.39384859508959" lon="8.541482824463511"><ele>538.0</ele><time>2026-04-27T16:54:30.01Z</time></trkpt><trkpt lat="39.39378047691704" lon="8.541471603155275"><ele>538.1999999999999</ele><time>2026-04-27T16:54:31.01Z</time></trkpt><trkpt lat="39.39369404943686" lon="8.541481068758475"><ele>538.4</ele><time>2026-04-27T16:54:32.01Z</time></trkpt><trkpt lat="39.39359860163488" lon="8.541512763151307"><ele>538.5999999999999</ele><time>2026-04-27T16:54:33.01Z</time></trkpt><trkpt lat="39.39349394572222" lon="8.54154534893126"><ele>538.8</ele><time>2026-04-27T16:54:34.01Z</time></trkpt><trkpt lat="39.39338481175969" lon="8.541583693723773"><ele>539.0</ele><time>2026-04-27T16:54:35.01Z</time></trkpt><trkpt lat="39.39328487151647" lon="8.54161384363694"><ele>539.0</ele><time>2026-04-27T16:54:36.01Z</time></trkpt><trkpt lat="39.39318729458927" lon="8.541629755249632"><ele>539.0</ele><time>2026-04-27T16:54:37.01Z</time></trkpt><trkpt lat="39.393090874289854" lon="8.54162131146526"><ele>539.0</ele><time>2026-04-27T16:54:38.01Z</time></trkpt><trkpt lat="39.39299438181564" lon="8.541580333732092"><ele>539.0</ele><time>2026-04-27T16:54:39.01Z</time></trkpt><trkpt lat="39.3928871451365" lon="8.541507842066444"><ele>539.0</ele><time>2026-04-27T16:54:40.01Z</time></trkpt><trkpt lat="39.39278168695505" lon="8.541433718779954"><ele>541.0</ele><time>2026-04-27T16:54:41.01Z</time></trkpt><trkpt lat="39.39266747744672" lon="8.541352979112414"><ele>543.0</ele><time>2026-04-27T16:54:42.01Z</time></trkpt><trkpt lat="39.392554333870216" lon="8.541263890103089"><ele>545.0</ele><time>2026-04-27T16:54:43.01Z</time></trkpt><trkpt lat="39.392446319271265" lon="8.541184691028981"><ele>547.0</ele><time>2026-04-27T16:54:44.01Z</time></trkpt><trkpt lat="39.392342898125314" lon="8.541106828633772"><ele>545.0</ele><time>2026-04-27T16:54:45.01Z</time></trkpt><trkpt lat="39.39225211266614" lon="8.541025763602173"><ele>543.0</ele><time>2026-04-27T16:54:46.01Z</time></trkpt><trkpt lat="39.392163743561134" lon="8.540960271465854"><ele>541.0</ele><time>2026-04-27T16:54:47.01Z</time></trkpt><trkpt lat="39.39207853452507" lon="8.540908302561768"><ele>539.0</ele><time>2026-04-27T16:54:48.01Z</time></trkpt><trkpt lat="39.3919964607416" lon="8.5408956451019"><ele>537.0</ele><time>2026-04-27T16:54:49.01Z</time></trkpt><trkpt lat="39.391902597673656" lon="8.540894311732954"><ele>537.0</ele><time>2026-04-27T16:54:50.01Z</time></trkpt><trkpt lat="39.39179612136654" lon="8.540915446148732"><ele>537.0</ele><time>2026-04-27T16:54:51.01Z</time></trkpt><trkpt lat="39.3916916411458" lon="8.54092965446372"><ele>537.0</ele><time>2026-04-27T16:54:52.01Z</time></trkpt><trkpt lat="39.39160101994476" lon="8.540898194433298"><ele>537.0</ele><time>2026-04-27T16:54:53.01Z</time></trkpt><trkpt lat="39.391492831446975" lon="8.540838286693681"><ele>537.0</ele><time>2026-04-27T16:54:54.01Z</time></trkpt><trkpt lat="39.391388981091" lon="8.540789989779016"><ele>541.0</ele><time>2026-04-27T16:54:55.01Z</time></trkpt><trkpt lat="39.39126249775541" lon="8.540744297750342"><ele>545.0</ele><time>2026-04-27T16:54:56.01Z</time></trkpt><trkpt lat="39.39114500238511" lon="8.540669311414831"><ele>549.0</ele><time>2026-04-27T16:54:57.01Z</time></trkpt><trkpt lat="39.39102455993497" lon="8.540638834328488"><ele>553.0</ele><time>2026-04-27T16:54:58.01Z</time></trkpt><trkpt lat="39.390943377417955" lon="8.540572443816743"><ele>553.0</ele><time>2026-04-27T16:54:59.01Z</time></trkpt><trkpt lat="39.39088122254758" lon="8.540532331500465"><ele>553.0</ele><time>2026-04-27T16:55:00.01Z</time></trkpt><trkpt lat="39.39083684104727" lon="8.540377453785164"><ele>553.0</ele><time>2026-04-27T16:55:02.01Z</time></trkpt><trkpt lat="39.39082844578999" lon="8.540295469895213"><ele>553.0</ele><time>2026-04-27T16:55:03.01Z</time></trkpt><trkpt lat="39.39085353730207" lon="8.54020183340372"><ele>553.0</ele><time>2026-04-27T16:55:04.01Z</time></trkpt><trkpt lat="39.39084598283247" lon="8.540099063205139"><ele>553.0</ele><time>2026-04-27T16:55:05.01Z</time></trkpt><trkpt lat="39.390806513249636" lon="8.540003116507654"><ele>552.1999999999999</ele><time>2026-04-27T16:55:06.01Z</time></trkpt><trkpt lat="39.39069702132487" lon="8.539922539265948"><ele>551.4</ele><time>2026-04-27T16:55:08.01Z</time></trkpt><trkpt lat="39.39060709012222" lon="8.539904835794653"><ele>550.5999999999999</ele><time>2026-04-27T16:55:09.01Z</time></trkpt><trkpt lat="39.39051271764395" lon="8.539901126553517"><ele>549.8</ele><time>2026-04-27T16:55:10.01Z</time></trkpt><trkpt lat="39.390419020341135" lon="8.53990307732556"><ele>549.0</ele><time>2026-04-27T16:55:11.01Z</time></trkpt><trkpt lat="39.39030115174019" lon="8.539902529223042"><ele>549.0</ele><time>2026-04-27T16:55:12.01Z</time></trkpt><trkpt lat="39.39018363479539" lon="8.539945423133847"><ele>549.0</ele><time>2026-04-27T16:55:13.01Z</time></trkpt><trkpt lat="39.390056415101874" lon="8.539996820113496"><ele>549.0</ele><time>2026-04-27T16:55:14.01Z</time></trkpt><trkpt lat="39.38992512110384" lon="8.540041704960167"><ele>549.0</ele><time>2026-04-27T16:55:15.01Z</time></trkpt><trkpt lat="39.3898057557279" lon="8.540082241317158"><ele>549.0</ele><time>2026-04-27T16:55:16.01Z</time></trkpt><trkpt lat="39.38970408845977" lon="8.540115684556884"><ele>549.0</ele><time>2026-04-27T16:55:17.01Z</time></trkpt><trkpt lat="39.389603599152785" lon="8.540142940746009"><ele>549.0</ele><time>2026-04-27T16:55:18.01Z</time></trkpt><trkpt lat="39.38950418805228" lon="8.540161593228841"><ele>549.0</ele><time>2026-04-27T16:55:19.01Z</time></trkpt><trkpt lat="39.389408685681865" lon="8.54019581346749"><ele>549.0</ele><time>2026-04-27T16:55:20.01Z</time></trkpt><trkpt lat="39.38932104256342" lon="8.54020348436164"><ele>548.8</ele><time>2026-04-27T16:55:21.01Z</time></trkpt><trkpt lat="39.38923485266347" lon="8.54021693670683"><ele>548.5999999999999</ele><time>2026-04-27T16:55:22.01Z</time></trkpt><trkpt lat="39.38916970200366" lon="8.54021583317175"><ele>548.4</ele><time>2026-04-27T16:55:23.01Z</time></trkpt><trkpt lat="39.38908273307187" lon="8.540206750832214"><ele>548.1999999999999</ele><time>2026-04-27T16:55:25.01Z</time></trkpt><trkpt lat="39.3890084368352" lon="8.540231545966533"><ele>548.0</ele><time>2026-04-27T16:55:27.01Z</time></trkpt><trkpt lat="39.38881435539633" lon="8.540307758981909"><ele>546.75</ele><time>2026-04-27T16:55:28.01Z</time></trkpt><trkpt lat="39.38872373136934" lon="8.540230332296558"><ele>545.5</ele><time>2026-04-27T16:55:29.01Z</time></trkpt><trkpt lat="39.38856605938466" lon="8.540076035322768"><ele>544.25</ele><time>2026-04-27T16:55:30.01Z</time></trkpt><trkpt lat="39.38849355025261" lon="8.539973663160806"><ele>543.0</ele><time>2026-04-27T16:55:31.01Z</time></trkpt><trkpt lat="39.38841181095659" lon="8.539863168012221"><ele>543.0</ele><time>2026-04-27T16:55:32.01Z</time></trkpt><trkpt lat="39.38831987992428" lon="8.53975826784872"><ele>543.0</ele><time>2026-04-27T16:55:33.01Z</time></trkpt><trkpt lat="39.38823476398271" lon="8.539651818096944"><ele>543.0</ele><time>2026-04-27T16:55:34.01Z</time></trkpt><trkpt lat="39.38815737579966" lon="8.539560871855125"><ele>543.0</ele><time>2026-04-27T16:55:35.01Z</time></trkpt><trkpt lat="39.38806522578966" lon="8.539500895965265"><ele>543.0</ele><time>2026-04-27T16:55:36.01Z</time></trkpt><trkpt lat="39.38795653867156" lon="8.539447443573762"><ele>540.5</ele><time>2026-04-27T16:55:37.01Z</time></trkpt><trkpt lat="39.38783659223635" lon="8.539395295473343"><ele>538.0</ele><time>2026-04-27T16:55:38.01Z</time></trkpt><trkpt lat="39.38771387337274" lon="8.539340576740255"><ele>535.5</ele><time>2026-04-27T16:55:39.01Z</time></trkpt><trkpt lat="39.38757918606719" lon="8.539281598565745"><ele>533.0</ele><time>2026-04-27T16:55:40.01Z</time></trkpt><trkpt lat="39.387439836564745" lon="8.539221551188868"><ele>533.0</ele><time>2026-04-27T16:55:41.01Z</time></trkpt><trkpt lat="39.38730548374325" lon="8.539167710867147"><ele>533.0</ele><time>2026-04-27T16:55:42.01Z</time></trkpt><trkpt lat="39.38718291451322" lon="8.539098011009191"><ele>533.0</ele><time>2026-04-27T16:55:43.01Z</time></trkpt><trkpt lat="39.38705741735313" lon="8.539046472739404"><ele>533.0</ele><time>2026-04-27T16:55:44.01Z</time></trkpt><trkpt lat="39.3869330963261" lon="8.539012385512956"><ele>534.0</ele><time>2026-04-27T16:55:45.01Z</time></trkpt><trkpt lat="39.38681331956824" lon="8.53898480864688"><ele>535.0</ele><time>2026-04-27T16:55:46.01Z</time></trkpt><trkpt lat="39.38669569680525" lon="8.53895436194197"><ele>536.0</ele><time>2026-04-27T16:55:47.01Z</time></trkpt><trkpt lat="39.38658076534698" lon="8.538918812675231"><ele>537.0</ele><time>2026-04-27T16:55:48.01Z</time></trkpt><trkpt lat="39.38646599225299" lon="8.53886356165361"><ele>537.0</ele><time>2026-04-27T16:55:49.01Z</time></trkpt><trkpt lat="39.38636245173578" lon="8.538781594180831"><ele>537.0</ele><time>2026-04-27T16:55:50.01Z</time></trkpt><trkpt lat="39.38625113889043" lon="8.538698902838307"><ele>537.0</ele><time>2026-04-27T16:55:51.01Z</time></trkpt><trkpt lat="39.386142897853674" lon="8.538615604682008"><ele>537.0</ele><time>2026-04-27T16:55:52.01Z</time></trkpt><trkpt lat="39.38604378510533" lon="8.538513522321358"><ele>533.25</ele><time>2026-04-27T16:55:53.01Z</time></trkpt><trkpt lat="39.38592895339966" lon="8.538439982542874"><ele>529.5</ele><time>2026-04-27T16:55:54.01Z</time></trkpt><trkpt lat="39.385814633469934" lon="8.538361503606986"><ele>525.75</ele><time>2026-04-27T16:55:55.01Z</time></trkpt><trkpt lat="39.38568710623532" lon="8.538269706956134"><ele>522.0</ele><time>2026-04-27T16:55:56.01Z</time></trkpt><trkpt lat="39.38556058256711" lon="8.53818486555874"><ele>521.25</ele><time>2026-04-27T16:55:57.01Z</time></trkpt><trkpt lat="39.385440935129196" lon="8.538105174628406"><ele>520.5</ele><time>2026-04-27T16:55:58.01Z</time></trkpt><trkpt lat="39.38531077905556" lon="8.538026907241818"><ele>519.75</ele><time>2026-04-27T16:55:59.011Z</time></trkpt><trkpt lat="39.38519385565478" lon="8.537961704679155"><ele>519.0</ele><time>2026-04-27T16:56:00.011Z</time></trkpt><trkpt lat="39.38505902882316" lon="8.537902214116876"><ele>518.0</ele><time>2026-04-27T16:56:01.011Z</time></trkpt><trkpt lat="39.38494352313542" lon="8.537847302687327"><ele>517.0</ele><time>2026-04-27T16:56:02.011Z</time></trkpt><trkpt lat="39.38485017591033" lon="8.53776415384719"><ele>516.0</ele><time>2026-04-27T16:56:03.011Z</time></trkpt><trkpt lat="39.38477256701514" lon="8.537674586640565"><ele>515.0</ele><time>2026-04-27T16:56:04.011Z</time></trkpt><trkpt lat="39.38471447750077" lon="8.537556020705614"><ele>514.0</ele><time>2026-04-27T16:56:05.011Z</time></trkpt><trkpt lat="39.38466143867764" lon="8.537422024476486"><ele>514.0</ele><time>2026-04-27T16:56:06.011Z</time></trkpt><trkpt lat="39.38460341203059" lon="8.537290536377109"><ele>514.0</ele><time>2026-04-27T16:56:07.011Z</time></trkpt><trkpt lat="39.384529719089805" lon="8.537156135886638"><ele>514.0</ele><time>2026-04-27T16:56:08.011Z</time></trkpt><trkpt lat="39.38445848389134" lon="8.537048977175102"><ele>514.0</ele><time>2026-04-27T16:56:09.011Z</time></trkpt><trkpt lat="39.38440629669448" lon="8.536958783244259"><ele>514.0</ele><time>2026-04-27T16:56:10.011Z</time></trkpt><trkpt lat="39.38438262760035" lon="8.536870333143526"><ele>513.8333333333334</ele><time>2026-04-27T16:56:12.011Z</time></trkpt><trkpt lat="39.38449477488228" lon="8.536871331844926"><ele>513.6666666666667</ele><time>2026-04-27T16:56:15.011Z</time></trkpt><trkpt lat="39.38454616529178" lon="8.536785982701957"><ele>513.5</ele><time>2026-04-27T16:56:16.011Z</time></trkpt><trkpt lat="39.38461065665269" lon="8.536768973815372"><ele>513.3333333333334</ele><time>2026-04-27T16:56:17.011Z</time></trkpt><trkpt lat="39.38468890339098" lon="8.536729922021674"><ele>513.1666666666666</ele><time>2026-04-27T16:56:18.011Z</time></trkpt><trkpt lat="39.3847856307282" lon="8.536696228390825"><ele>513.0</ele><time>2026-04-27T16:56:19.011Z</time></trkpt><trkpt lat="39.38491127166568" lon="8.536731772742128"><ele>513.0</ele><time>2026-04-27T16:56:20.011Z</time></trkpt><trkpt lat="39.38502538217671" lon="8.536661095603069"><ele>513.0</ele><time>2026-04-27T16:56:21.011Z</time></trkpt><trkpt lat="39.38514251569723" lon="8.536592697770448"><ele>513.0</ele><time>2026-04-27T16:56:22.011Z</time></trkpt><trkpt lat="39.38525456482625" lon="8.536527239384803"><ele>513.0</ele><time>2026-04-27T16:56:23.011Z</time></trkpt><trkpt lat="39.38536950093204" lon="8.53646022825308"><ele>513.0</ele><time>2026-04-27T16:56:24.011Z</time></trkpt><trkpt lat="39.385486664766134" lon="8.536402909617822"><ele>513.0</ele><time>2026-04-27T16:56:25.011Z</time></trkpt><trkpt lat="39.38560402328475" lon="8.536356424264024"><ele>513.0</ele><time>2026-04-27T16:56:26.011Z</time></trkpt><trkpt lat="39.385724489708664" lon="8.536292134156374"><ele>513.0</ele><time>2026-04-27T16:56:27.011Z</time></trkpt><trkpt lat="39.38585463620242" lon="8.536233371821226"><ele>515.25</ele><time>2026-04-27T16:56:28.011Z</time></trkpt><trkpt lat="39.38598339796512" lon="8.536186658206518"><ele>517.5</ele><time>2026-04-27T16:56:29.011Z</time></trkpt><trkpt lat="39.386102146428314" lon="8.536173524762853"><ele>519.75</ele><time>2026-04-27T16:56:30.011Z</time></trkpt><trkpt lat="39.38621062238071" lon="8.536174061481251"><ele>522.0</ele><time>2026-04-27T16:56:31.011Z</time></trkpt><trkpt lat="39.38630965448818" lon="8.536185550854812"><ele>520.5</ele><time>2026-04-27T16:56:32.011Z</time></trkpt><trkpt lat="39.3863929761682" lon="8.536171899648362"><ele>519.0</ele><time>2026-04-27T16:56:33.011Z</time></trkpt><trkpt lat="39.38646273286948" lon="8.536140514540287"><ele>517.5</ele><time>2026-04-27T16:56:34.011Z</time></trkpt><trkpt lat="39.38652115926989" lon="8.536071313437137"><ele>516.0</ele><time>2026-04-27T16:56:35.011Z</time></trkpt><trkpt lat="39.38658968842839" lon="8.53599501769478"><ele>514.5</ele><time>2026-04-27T16:56:36.011Z</time></trkpt><trkpt lat="39.38666494394571" lon="8.535897244481458"><ele>513.0</ele><time>2026-04-27T16:56:37.011Z</time></trkpt><trkpt lat="39.38675317875491" lon="8.535804593034271"><ele>513.0</ele><time>2026-04-27T16:56:38.011Z</time></trkpt><trkpt lat="39.386829953799285" lon="8.535689082288666"><ele>513.0</ele><time>2026-04-27T16:56:39.011Z</time></trkpt><trkpt lat="39.386888965619214" lon="8.535567433409783"><ele>513.0</ele><time>2026-04-27T16:56:40.011Z</time></trkpt><trkpt lat="39.386930925823194" lon="8.535435426653397"><ele>513.0</ele><time>2026-04-27T16:56:41.011Z</time></trkpt><trkpt lat="39.386943926812414" lon="8.535296540428837"><ele>513.0</ele><time>2026-04-27T16:56:42.011Z</time></trkpt><trkpt lat="39.38694480334391" lon="8.535158197304039"><ele>513.0</ele><time>2026-04-27T16:56:43.011Z</time></trkpt><trkpt lat="39.386937438028994" lon="8.535008253475368"><ele>513.0</ele><time>2026-04-27T16:56:44.011Z</time></trkpt><trkpt lat="39.38695530269415" lon="8.534849214480262"><ele>513.0</ele><time>2026-04-27T16:56:45.011Z</time></trkpt><trkpt lat="39.386952827253104" lon="8.53468868642794"><ele>513.0</ele><time>2026-04-27T16:56:46.011Z</time></trkpt><trkpt lat="39.38694741766752" lon="8.5345252825439"><ele>512.1999999999999</ele><time>2026-04-27T16:56:47.011Z</time></trkpt><trkpt lat="39.38696530658821" lon="8.534376405548741"><ele>511.4</ele><time>2026-04-27T16:56:48.011Z</time></trkpt><trkpt lat="39.38699315999917" lon="8.53423917103351"><ele>510.59999999999997</ele><time>2026-04-27T16:56:49.011Z</time></trkpt><trkpt lat="39.387039790258214" lon="8.534127663331015"><ele>509.79999999999995</ele><time>2026-04-27T16:56:50.011Z</time></trkpt><trkpt lat="39.387099634287296" lon="8.534026468983148"><ele>509.0</ele><time>2026-04-27T16:56:51.011Z</time></trkpt><trkpt lat="39.38716544320744" lon="8.533918249538168"><ele>510.99999999999994</ele><time>2026-04-27T16:56:52.011Z</time></trkpt><trkpt lat="39.38722285320589" lon="8.53382616517922"><ele>513.0</ele><time>2026-04-27T16:56:53.011Z</time></trkpt><trkpt lat="39.38727683763929" lon="8.533762966874946"><ele>515.0</ele><time>2026-04-27T16:56:54.011Z</time></trkpt><trkpt lat="39.387343555323525" lon="8.53371094753331"><ele>517.0</ele><time>2026-04-27T16:56:55.011Z</time></trkpt><trkpt lat="39.38741621225233" lon="8.53368759746388"><ele>519.0</ele><time>2026-04-27T16:56:56.011Z</time></trkpt><trkpt lat="39.387499560445455" lon="8.533688661810059"><ele>521.0</ele><time>2026-04-27T16:56:57.011Z</time></trkpt><trkpt lat="39.38757836669094" lon="8.533690573184648"><ele>521.0</ele><time>2026-04-27T16:56:58.011Z</time></trkpt><trkpt lat="39.3876802985249" lon="8.533706331844215"><ele>521.0</ele><time>2026-04-27T16:56:59.011Z</time></trkpt><trkpt lat="39.38778520069058" lon="8.533739350470515"><ele>521.0</ele><time>2026-04-27T16:57:00.011Z</time></trkpt><trkpt lat="39.38789757236864" lon="8.533774564734118"><ele>521.0</ele><time>2026-04-27T16:57:01.011Z</time></trkpt><trkpt lat="39.387999478788146" lon="8.53381528002078"><ele>521.0</ele><time>2026-04-27T16:57:02.011Z</time></trkpt><trkpt lat="39.388103465402445" lon="8.533818432566122"><ele>525.4</ele><time>2026-04-27T16:57:03.011Z</time></trkpt><trkpt lat="39.38818660378023" lon="8.533795099133716"><ele>529.8</ele><time>2026-04-27T16:57:04.011Z</time></trkpt><trkpt lat="39.38828051655507" lon="8.533719046006999"><ele>534.1999999999999</ele><time>2026-04-27T16:57:06.011Z</time></trkpt><trkpt lat="39.38828929556917" lon="8.533540063026495"><ele>538.6</ele><time>2026-04-27T16:57:08.011Z</time></trkpt><trkpt lat="39.38821676750863" lon="8.533455536712093"><ele>543.0</ele><time>2026-04-27T16:57:09.011Z</time></trkpt><trkpt lat="39.388143017418614" lon="8.533404912847468"><ele>543.0</ele><time>2026-04-27T16:57:10.011Z</time></trkpt><trkpt lat="39.388070746225935" lon="8.53335721960883"><ele>543.0</ele><time>2026-04-27T16:57:11.011Z</time></trkpt><trkpt lat="39.38798726137911" lon="8.53329480829611"><ele>543.0</ele><time>2026-04-27T16:57:12.011Z</time></trkpt><trkpt lat="39.38790844745673" lon="8.533235888678234"><ele>543.0</ele><time>2026-04-27T16:57:13.011Z</time></trkpt><trkpt lat="39.38784996062662" lon="8.533178945290281"><ele>543.0</ele><time>2026-04-27T16:57:14.011Z</time></trkpt><trkpt lat="39.38780480547618" lon="8.533115956785505"><ele>543.0</ele><time>2026-04-27T16:57:15.011Z</time></trkpt><trkpt lat="39.38782145327261" lon="8.532973039948493"><ele>539.0</ele><time>2026-04-27T16:57:17.011Z</time></trkpt><trkpt lat="39.38784750398863" lon="8.53286614650289"><ele>535.0</ele><time>2026-04-27T16:57:18.011Z</time></trkpt><trkpt lat="39.38786761156267" lon="8.532759396422362"><ele>531.0</ele><time>2026-04-27T16:57:19.011Z</time></trkpt><trkpt lat="39.387872079489625" lon="8.532612543286"><ele>527.0</ele><time>2026-04-27T16:57:20.011Z</time></trkpt><trkpt lat="39.38786336938316" lon="8.53247482716039"><ele>523.0</ele><time>2026-04-27T16:57:21.011Z</time></trkpt><trkpt lat="39.38787005468268" lon="8.532342712886397"><ele>523.0</ele><time>2026-04-27T16:57:22.011Z</time></trkpt><trkpt lat="39.38788473279517" lon="8.532199364841636"><ele>523.0</ele><time>2026-04-27T16:57:23.011Z</time></trkpt><trkpt lat="39.387900103030965" lon="8.532070493089511"><ele>523.0</ele><time>2026-04-27T16:57:24.011Z</time></trkpt><trkpt lat="39.38789209531758" lon="8.531965900378651"><ele>523.0</ele><time>2026-04-27T16:57:25.011Z</time></trkpt><trkpt lat="39.387853288554" lon="8.531879827918232"><ele>523.0</ele><time>2026-04-27T16:57:26.011Z</time></trkpt><trkpt lat="39.38779474514086" lon="8.531825069962277"><ele>523.0</ele><time>2026-04-27T16:57:27.011Z</time></trkpt><trkpt lat="39.387723990087146" lon="8.5317749286888"><ele>525.3333333333334</ele><time>2026-04-27T16:57:28.011Z</time></trkpt><trkpt lat="39.38763552613519" lon="8.531766159279867"><ele>527.6666666666667</ele><time>2026-04-27T16:57:29.011Z</time></trkpt><trkpt lat="39.387551626661235" lon="8.531718213577212"><ele>530.0</ele><time>2026-04-27T16:57:30.011Z</time></trkpt><trkpt lat="39.3874547672821" lon="8.531692026534323"><ele>532.3333333333334</ele><time>2026-04-27T16:57:31.011Z</time></trkpt><trkpt lat="39.3873726739423" lon="8.531664690512189"><ele>534.6666666666666</ele><time>2026-04-27T16:57:32.011Z</time></trkpt><trkpt lat="39.38730478718238" lon="8.531628627817616"><ele>537.0</ele><time>2026-04-27T16:57:33.011Z</time></trkpt><trkpt lat="39.3872366943868" lon="8.53150079172705"><ele>537.0</ele><time>2026-04-27T16:57:35.011Z</time></trkpt><trkpt lat="39.38725282612941" lon="8.531416480683925"><ele>537.0</ele><time>2026-04-27T16:57:36.011Z</time></trkpt><trkpt lat="39.38726328908634" lon="8.53131046099218"><ele>537.0</ele><time>2026-04-27T16:57:37.011Z</time></trkpt><trkpt lat="39.38729947693551" lon="8.531200249455503"><ele>537.0</ele><time>2026-04-27T16:57:38.012Z</time></trkpt><trkpt lat="39.38732589834213" lon="8.53108199995457"><ele>537.0</ele><time>2026-04-27T16:57:39.012Z</time></trkpt><trkpt lat="39.38735518666182" lon="8.530944583185999"><ele>537.0</ele><time>2026-04-27T16:57:40.012Z</time></trkpt><trkpt lat="39.387369602091034" lon="8.530803450255123"><ele>537.2</ele><time>2026-04-27T16:57:41.012Z</time></trkpt><trkpt lat="39.387380646124555" lon="8.530677869604075"><ele>537.4000000000001</ele><time>2026-04-27T16:57:42.012Z</time></trkpt><trkpt lat="39.38740495924507" lon="8.530584370805359"><ele>537.5999999999999</ele><time>2026-04-27T16:57:43.012Z</time></trkpt><trkpt lat="39.387497012059704" lon="8.530473988141507"><ele>537.8</ele><time>2026-04-27T16:57:45.012Z</time></trkpt><trkpt lat="39.387568875041026" lon="8.53041466635254"><ele>538.0</ele><time>2026-04-27T16:57:46.012Z</time></trkpt><trkpt lat="39.38762707354667" lon="8.530354052472749"><ele>536.8333333333334</ele><time>2026-04-27T16:57:47.012Z</time></trkpt><trkpt lat="39.38765379968197" lon="8.5302776108443"><ele>535.6666666666667</ele><time>2026-04-27T16:57:48.012Z</time></trkpt><trkpt lat="39.38765984922255" lon="8.530190000176587"><ele>534.5</ele><time>2026-04-27T16:57:49.012Z</time></trkpt><trkpt lat="39.38765376418349" lon="8.530083367672788"><ele>533.3333333333334</ele><time>2026-04-27T16:57:50.012Z</time></trkpt><trkpt lat="39.38764922700991" lon="8.529960725940455"><ele>532.1666666666666</ele><time>2026-04-27T16:57:51.012Z</time></trkpt><trkpt lat="39.387637947677106" lon="8.529807569986323"><ele>531.0</ele><time>2026-04-27T16:57:52.012Z</time></trkpt><trkpt lat="39.38763415280499" lon="8.529650948127717"><ele>530.4</ele><time>2026-04-27T16:57:53.012Z</time></trkpt><trkpt lat="39.38762842426416" lon="8.529493996078607"><ele>529.8</ele><time>2026-04-27T16:57:54.012Z</time></trkpt><trkpt lat="39.38761754375728" lon="8.52933867610453"><ele>529.1999999999999</ele><time>2026-04-27T16:57:55.012Z</time></trkpt><trkpt lat="39.38761300279118" lon="8.529196404625603"><ele>528.6</ele><time>2026-04-27T16:57:56.012Z</time></trkpt><trkpt lat="39.38762107795406" lon="8.529114378184314"><ele>528.0</ele><time>2026-04-27T16:57:57.012Z</time></trkpt><trkpt lat="39.38770957854199" lon="8.529035599677831"><ele>528.0</ele><time>2026-04-27T16:57:59.012Z</time></trkpt><trkpt lat="39.38777509404855" lon="8.529035660115348"><ele>528.0</ele><time>2026-04-27T16:58:00.012Z</time></trkpt><trkpt lat="39.387864175504326" lon="8.52905581285351"><ele>528.0</ele><time>2026-04-27T16:58:01.012Z</time></trkpt><trkpt lat="39.387964887517846" lon="8.529047739944831"><ele>528.0</ele><time>2026-04-27T16:58:02.004Z</time></trkpt><trkpt lat="39.38806240159839" lon="8.52903041232775"><ele>528.0</ele><time>2026-04-27T16:58:03.004Z</time></trkpt><trkpt lat="39.38815853273427" lon="8.529017392043121"><ele>529.6666666666666</ele><time>2026-04-27T16:58:04.004Z</time></trkpt><trkpt lat="39.38823425840761" lon="8.529052500152554"><ele>531.3333333333334</ele><time>2026-04-27T16:58:05.004Z</time></trkpt><trkpt lat="39.38830639423872" lon="8.529106574302027"><ele>533.0</ele><time>2026-04-27T16:58:06.004Z</time></trkpt><trkpt lat="39.38837777969401" lon="8.52915861487461"><ele>534.6666666666667</ele><time>2026-04-27T16:58:07.004Z</time></trkpt><trkpt lat="39.388448032700055" lon="8.529239137816576"><ele>536.3333333333334</ele><time>2026-04-27T16:58:08.004Z</time></trkpt><trkpt lat="39.38851966222785" lon="8.529338687781548"><ele>538.0</ele><time>2026-04-27T16:58:09.004Z</time></trkpt><trkpt lat="39.38860476434389" lon="8.529398099648008"><ele>538.0</ele><time>2026-04-27T16:58:10.004Z</time></trkpt><trkpt lat="39.388673351580714" lon="8.529484388906376"><ele>538.0</ele><time>2026-04-27T16:58:11.004Z</time></trkpt><trkpt lat="39.38874544535278" lon="8.529588601757935"><ele>538.0</ele><time>2026-04-27T16:58:12.004Z</time></trkpt><trkpt lat="39.38880949184282" lon="8.529701517336683"><ele>538.0</ele><time>2026-04-27T16:58:13.004Z</time></trkpt><trkpt lat="39.38886963579204" lon="8.529815567753745"><ele>538.0</ele><time>2026-04-27T16:58:14.004Z</time></trkpt><trkpt lat="39.388928604116906" lon="8.529920739504153"><ele>537.8333333333334</ele><time>2026-04-27T16:58:15.004Z</time></trkpt><trkpt lat="39.38898721714914" lon="8.529997773957644"><ele>537.6666666666667</ele><time>2026-04-27T16:58:16.004Z</time></trkpt><trkpt lat="39.389063446398794" lon="8.530049953187719"><ele>537.5</ele><time>2026-04-27T16:58:17.004Z</time></trkpt><trkpt lat="39.389151605372696" lon="8.530085079207012"><ele>537.3333333333334</ele><time>2026-04-27T16:58:18.004Z</time></trkpt><trkpt lat="39.389229031928984" lon="8.530084914404235"><ele>537.1666666666666</ele><time>2026-04-27T16:58:19.004Z</time></trkpt><trkpt lat="39.38929827621846" lon="8.5300767097306"><ele>537.0</ele><time>2026-04-27T16:58:20.004Z</time></trkpt><trkpt lat="39.38936094973306" lon="8.530031331833259"><ele>537.0</ele><time>2026-04-27T16:58:21.004Z</time></trkpt><trkpt lat="39.38940636334546" lon="8.529942784296225"><ele>537.0</ele><time>2026-04-27T16:58:22.004Z</time></trkpt><trkpt lat="39.38946337929306" lon="8.529848551249"><ele>537.0</ele><time>2026-04-27T16:58:23.004Z</time></trkpt><trkpt lat="39.389497281152195" lon="8.529709971104877"><ele>537.0</ele><time>2026-04-27T16:58:24.004Z</time></trkpt><trkpt lat="39.38950747009793" lon="8.529558346429786"><ele>537.0</ele><time>2026-04-27T16:58:25.004Z</time></trkpt><trkpt lat="39.389526170486505" lon="8.529416065026425"><ele>537.2</ele><time>2026-04-27T16:58:26.004Z</time></trkpt><trkpt lat="39.38955506073759" lon="8.529281019937974"><ele>537.4000000000001</ele><time>2026-04-27T16:58:27.004Z</time></trkpt><trkpt lat="39.389588695913574" lon="8.529148594487262"><ele>537.5999999999999</ele><time>2026-04-27T16:58:28.004Z</time></trkpt><trkpt lat="39.38963146383546" lon="8.529019658428984"><ele>537.8</ele><time>2026-04-27T16:58:29.004Z</time></trkpt><trkpt lat="39.38967719418617" lon="8.528886101219143"><ele>538.0</ele><time>2026-04-27T16:58:30.004Z</time></trkpt><trkpt lat="39.38970656143568" lon="8.528739080901797"><ele>533.8</ele><time>2026-04-27T16:58:31.004Z</time></trkpt><trkpt lat="39.389751910274086" lon="8.528625740578516"><ele>529.5999999999999</ele><time>2026-04-27T16:58:32.004Z</time></trkpt><trkpt lat="39.389802518540066" lon="8.528541042484761"><ele>525.4000000000001</ele><time>2026-04-27T16:58:33.004Z</time></trkpt><trkpt lat="39.389859207062266" lon="8.528482976288203"><ele>521.2</ele><time>2026-04-27T16:58:34.004Z</time></trkpt><trkpt lat="39.38998477303119" lon="8.52845347256935"><ele>517.0</ele><time>2026-04-27T16:58:36.004Z</time></trkpt><trkpt lat="39.390059330317364" lon="8.528451149654373"><ele>517.0</ele><time>2026-04-27T16:58:37.004Z</time></trkpt><trkpt lat="39.39014840421824" lon="8.528442894072771"><ele>517.0</ele><time>2026-04-27T16:58:38.004Z</time></trkpt><trkpt lat="39.39021552353419" lon="8.528437012898529"><ele>517.0</ele><time>2026-04-27T16:58:39.004Z</time></trkpt><trkpt lat="39.39025800231835" lon="8.528641821040246"><ele>517.0</ele><time>2026-04-27T16:58:43.004Z</time></trkpt><trkpt lat="39.39025637264778" lon="8.528536495328094"><ele>517.0</ele><time>2026-04-27T16:58:44.004Z</time></trkpt><trkpt lat="39.39025531562722" lon="8.528415853110067"><ele>533.0</ele><time>2026-04-27T16:58:45.004Z</time></trkpt><trkpt lat="39.39070159438757" lon="8.527906950412286"><ele>530.8</ele><time>2026-04-27T16:58:46.004Z</time></trkpt><trkpt lat="39.39072453202548" lon="8.527758762711"><ele>528.5999999999999</ele><time>2026-04-27T16:58:47.003Z</time></trkpt><trkpt lat="39.39073616364518" lon="8.527635087274634"><ele>526.4000000000001</ele><time>2026-04-27T16:58:48.003Z</time></trkpt><trkpt lat="39.39073813783741" lon="8.527517926182576"><ele>524.2</ele><time>2026-04-27T16:58:49.004Z</time></trkpt><trkpt lat="39.390729117061596" lon="8.527385599327435"><ele>522.0</ele><time>2026-04-27T16:58:50.004Z</time></trkpt><trkpt lat="39.390697796784785" lon="8.527248353703307"><ele>522.0</ele><time>2026-04-27T16:58:51.004Z</time></trkpt><trkpt lat="39.39066736166382" lon="8.52711589330271"><ele>522.0</ele><time>2026-04-27T16:58:52.004Z</time></trkpt><trkpt lat="39.390644789057035" lon="8.527008602105973"><ele>522.0</ele><time>2026-04-27T16:58:53.004Z</time></trkpt><trkpt lat="39.39062296510013" lon="8.526931552658302"><ele>522.0</ele><time>2026-04-27T16:58:54.004Z</time></trkpt><trkpt lat="39.3905450865553" lon="8.526878126396182"><ele>522.0</ele><time>2026-04-27T16:58:56.003Z</time></trkpt><trkpt lat="39.390521982880315" lon="8.52696650870172"><ele>522.0</ele><time>2026-04-27T16:58:57.003Z</time></trkpt><trkpt lat="39.3905054011862" lon="8.527137476068747"><ele>518.1666666666666</ele><time>2026-04-27T16:58:59.003Z</time></trkpt><trkpt lat="39.3904926680002" lon="8.527242218175978"><ele>514.3333333333334</ele><time>2026-04-27T16:59:00.003Z</time></trkpt><trkpt lat="39.39047153399159" lon="8.527347579634249"><ele>510.5</ele><time>2026-04-27T16:59:01.003Z</time></trkpt><trkpt lat="39.39044071094535" lon="8.527426677507238"><ele>506.6666666666667</ele><time>2026-04-27T16:59:02.003Z</time></trkpt><trkpt lat="39.3903979318068" lon="8.527517792890546"><ele>502.83333333333337</ele><time>2026-04-27T16:59:03.003Z</time></trkpt><trkpt lat="39.39034412056707" lon="8.52757703583242"><ele>499.0</ele><time>2026-04-27T16:59:04.003Z</time></trkpt><trkpt lat="39.390247981092216" lon="8.527588686719547"><ele>499.0</ele><time>2026-04-27T16:59:06.003Z</time></trkpt><trkpt lat="39.39017749688094" lon="8.527585543414173"><ele>499.0</ele><time>2026-04-27T16:59:07.003Z</time></trkpt><trkpt lat="39.39009360655471" lon="8.527524362098353"><ele>499.0</ele><time>2026-04-27T16:59:08.004Z</time></trkpt><trkpt lat="39.39000359346626" lon="8.527424301921707"><ele>499.0</ele><time>2026-04-27T16:59:09.004Z</time></trkpt><trkpt lat="39.389941133092265" lon="8.527413469564916"><ele>499.0</ele><time>2026-04-27T16:59:10.004Z</time></trkpt><trkpt lat="39.389806871248574" lon="8.52747605656531"><ele>499.00000000000006</ele><time>2026-04-27T16:59:12.004Z</time></trkpt><trkpt lat="39.389728947252344" lon="8.527511890146938"><ele>499.0</ele><time>2026-04-27T16:59:13.004Z</time></trkpt><trkpt lat="39.38966690145299" lon="8.527531785783944"><ele>499.0</ele><time>2026-04-27T16:59:14.004Z</time></trkpt><trkpt lat="39.3896204930437" lon="8.527402282054306"><ele>499.0</ele><time>2026-04-27T16:59:17.004Z</time></trkpt><trkpt lat="39.38965104414435" lon="8.527320359443712"><ele>499.00000000000006</ele><time>2026-04-27T16:59:18.004Z</time></trkpt><trkpt lat="39.389713864514775" lon="8.527247766851918"><ele>499.0</ele><time>2026-04-27T16:59:19.004Z</time></trkpt><trkpt lat="39.389778792759046" lon="8.527162393702302"><ele>499.0</ele><time>2026-04-27T16:59:20.004Z</time></trkpt><trkpt lat="39.38983353955387" lon="8.527073218364047"><ele>499.0</ele><time>2026-04-27T16:59:21.004Z</time></trkpt><trkpt lat="39.38986058655472" lon="8.526986429597132"><ele>499.0</ele><time>2026-04-27T16:59:22.004Z</time></trkpt><trkpt lat="39.38983733734054" lon="8.52680899704419"><ele>499.0</ele><time>2026-04-27T16:59:24.004Z</time></trkpt><trkpt lat="39.38980659662023" lon="8.526697390392913"><ele>499.0</ele><time>2026-04-27T16:59:25.004Z</time></trkpt><trkpt lat="39.38978633622514" lon="8.526573820183732"><ele>497.4</ele><time>2026-04-27T16:59:26.004Z</time></trkpt><trkpt lat="39.38978885018187" lon="8.526442426884913"><ele>495.79999999999995</ele><time>2026-04-27T16:59:27.004Z</time></trkpt><trkpt lat="39.38980713857129" lon="8.526305218687842"><ele>494.20000000000005</ele><time>2026-04-27T16:59:28.004Z</time></trkpt><trkpt lat="39.38983348121347" lon="8.526181377598943"><ele>492.6</ele><time>2026-04-27T16:59:29.004Z</time></trkpt><trkpt lat="39.389868137293114" lon="8.526062822087589"><ele>491.0</ele><time>2026-04-27T16:59:30.004Z</time></trkpt><trkpt lat="39.389887455930904" lon="8.52595269858464"><ele>489.4</ele><time>2026-04-27T16:59:31.004Z</time></trkpt><trkpt lat="39.38988346937804" lon="8.525849342042449"><ele>487.8</ele><time>2026-04-27T16:59:32.004Z</time></trkpt><trkpt lat="39.389852766318356" lon="8.525739011783008"><ele>486.19999999999993</ele><time>2026-04-27T16:59:33.004Z</time></trkpt><trkpt lat="39.38981442387877" lon="8.525608001424683"><ele>484.59999999999997</ele><time>2026-04-27T16:59:34.004Z</time></trkpt><trkpt lat="39.389791437161016" lon="8.525447609093028"><ele>483.0</ele><time>2026-04-27T16:59:35.004Z</time></trkpt><trkpt lat="39.389755005120776" lon="8.525293426018429"><ele>482.0</ele><time>2026-04-27T16:59:36.004Z</time></trkpt><trkpt lat="39.38972491948198" lon="8.525136396325571"><ele>481.0</ele><time>2026-04-27T16:59:37.004Z</time></trkpt><trkpt lat="39.38969300819333" lon="8.524971030005016"><ele>480.0</ele><time>2026-04-27T16:59:38.004Z</time></trkpt><trkpt lat="39.38966280441187" lon="8.524805565563595"><ele>479.0</ele><time>2026-04-27T16:59:39.004Z</time></trkpt><trkpt lat="39.38962967703985" lon="8.52464666439395"><ele>479.75</ele><time>2026-04-27T16:59:40.004Z</time></trkpt><trkpt lat="39.38959454125681" lon="8.524492498482871"><ele>480.5</ele><time>2026-04-27T16:59:41.004Z</time></trkpt><trkpt lat="39.389563197027634" lon="8.524337369575845"><ele>481.25</ele><time>2026-04-27T16:59:42.004Z</time></trkpt><trkpt lat="39.38954143593723" lon="8.524179724414006"><ele>482.0</ele><time>2026-04-27T16:59:43.004Z</time></trkpt><trkpt lat="39.38953703610838" lon="8.524018761744324"><ele>482.0</ele><time>2026-04-27T16:59:44.004Z</time></trkpt><trkpt lat="39.38953261356506" lon="8.523859337968656"><ele>482.0</ele><time>2026-04-27T16:59:45.004Z</time></trkpt><trkpt lat="39.3895176909294" lon="8.52370264054237"><ele>482.0</ele><time>2026-04-27T16:59:46.004Z</time></trkpt><trkpt lat="39.38949988880985" lon="8.523542901098278"><ele>482.0</ele><time>2026-04-27T16:59:47.004Z</time></trkpt><trkpt lat="39.38947951884252" lon="8.52338225535262"><ele>479.6</ele><time>2026-04-27T16:59:48.004Z</time></trkpt><trkpt lat="39.38946278057208" lon="8.523232909967167"><ele>477.20000000000005</ele><time>2026-04-27T16:59:49.004Z</time></trkpt><trkpt lat="39.38943931333151" lon="8.523097442632835"><ele>474.8</ele><time>2026-04-27T16:59:50.004Z</time></trkpt><trkpt lat="39.38944341038395" lon="8.522950908676613"><ele>472.4</ele><time>2026-04-27T16:59:51.004Z</time></trkpt><trkpt lat="39.38944408015895" lon="8.52282236016289"><ele>470.0</ele><time>2026-04-27T16:59:52.004Z</time></trkpt><trkpt lat="39.38945585185928" lon="8.522679318954385"><ele>468.5</ele><time>2026-04-27T16:59:53.004Z</time></trkpt><trkpt lat="39.38948149429594" lon="8.522524281468671"><ele>467.0</ele><time>2026-04-27T16:59:54.004Z</time></trkpt><trkpt lat="39.389517583817664" lon="8.522369349793719"><ele>465.5</ele><time>2026-04-27T16:59:55.004Z</time></trkpt><trkpt lat="39.3895545813707" lon="8.522200796501679"><ele>464.0</ele><time>2026-04-27T16:59:56.004Z</time></trkpt><trkpt lat="39.38959153743813" lon="8.522027654744276"><ele>463.99999999999994</ele><time>2026-04-27T16:59:57.004Z</time></trkpt><trkpt lat="39.389606779199276" lon="8.521884933601493"><ele>464.0</ele><time>2026-04-27T16:59:58.004Z</time></trkpt><trkpt lat="39.389622187767785" lon="8.521776563118687"><ele>464.0</ele><time>2026-04-27T16:59:59.004Z</time></trkpt><trkpt lat="39.38961519285166" lon="8.521687187651775"><ele>464.0</ele><time>2026-04-27T17:00:00.004Z</time></trkpt><trkpt lat="39.38957783439631" lon="8.521594502948808"><ele>463.99999999999994</ele><time>2026-04-27T17:00:01.004Z</time></trkpt><trkpt lat="39.38952032325584" lon="8.521487424319378"><ele>464.0</ele><time>2026-04-27T17:00:02.004Z</time></trkpt><trkpt lat="39.38946342017859" lon="8.521342901953602"><ele>461.75</ele><time>2026-04-27T17:00:03.004Z</time></trkpt><trkpt lat="39.38939465598604" lon="8.521198460824287"><ele>459.5</ele><time>2026-04-27T17:00:04.004Z</time></trkpt><trkpt lat="39.38932775142052" lon="8.521050661593065"><ele>457.25</ele><time>2026-04-27T17:00:05.004Z</time></trkpt><trkpt lat="39.389260711864395" lon="8.52089433402261"><ele>455.0</ele><time>2026-04-27T17:00:06.004Z</time></trkpt><trkpt lat="39.38919257140032" lon="8.520739942983955"><ele>455.0</ele><time>2026-04-27T17:00:07.004Z</time></trkpt><trkpt lat="39.389142468962625" lon="8.520595540161736"><ele>455.0</ele><time>2026-04-27T17:00:08.004Z</time></trkpt><trkpt lat="39.38910881643025" lon="8.5204456367676"><ele>455.0</ele><time>2026-04-27T17:00:09.004Z</time></trkpt><trkpt lat="39.38908244155816" lon="8.52028006877596"><ele>455.0</ele><time>2026-04-27T17:00:10.004Z</time></trkpt><trkpt lat="39.389064516481994" lon="8.520109541587283"><ele>452.0</ele><time>2026-04-27T17:00:11.004Z</time></trkpt><trkpt lat="39.38904925765446" lon="8.519927596161923"><ele>449.0</ele><time>2026-04-27T17:00:12.004Z</time></trkpt><trkpt lat="39.38904181931495" lon="8.519755358354121"><ele>446.0</ele><time>2026-04-27T17:00:13.004Z</time></trkpt><trkpt lat="39.389020376886634" lon="8.519616149971593"><ele>443.0</ele><time>2026-04-27T17:00:14.004Z</time></trkpt><trkpt lat="39.38899641002997" lon="8.51947000537781"><ele>442.0</ele><time>2026-04-27T17:00:15.004Z</time></trkpt><trkpt lat="39.388954905365416" lon="8.519316229772313"><ele>441.0</ele><time>2026-04-27T17:00:16.004Z</time></trkpt><trkpt lat="39.38891956558371" lon="8.51914497868665"><ele>440.0</ele><time>2026-04-27T17:00:17.004Z</time></trkpt><trkpt lat="39.38892283395467" lon="8.518971391837782"><ele>439.0</ele><time>2026-04-27T17:00:18.004Z</time></trkpt><trkpt lat="39.388916395150666" lon="8.518785959814156"><ele>437.75</ele><time>2026-04-27T17:00:19.004Z</time></trkpt><trkpt lat="39.38891274550748" lon="8.518618560530317"><ele>436.5</ele><time>2026-04-27T17:00:20.004Z</time></trkpt><trkpt lat="39.38891186030966" lon="8.518446734401326"><ele>435.25</ele><time>2026-04-27T17:00:21.004Z</time></trkpt><trkpt lat="39.38891362558984" lon="8.518268956993928"><ele>434.0</ele><time>2026-04-27T17:00:22.004Z</time></trkpt><trkpt lat="39.388924137615994" lon="8.518109563547066"><ele>434.0</ele><time>2026-04-27T17:00:23.004Z</time></trkpt><trkpt lat="39.38893584535152" lon="8.517970244852448"><ele>434.0</ele><time>2026-04-27T17:00:24.004Z</time></trkpt><trkpt lat="39.38893171362808" lon="8.517841628772356"><ele>434.0</ele><time>2026-04-27T17:00:25.004Z</time></trkpt><trkpt lat="39.38891284263828" lon="8.51770994628377"><ele>434.0</ele><time>2026-04-27T17:00:26.004Z</time></trkpt><trkpt lat="39.38887123217661" lon="8.517573924058198"><ele>434.0</ele><time>2026-04-27T17:00:27.004Z</time></trkpt><trkpt lat="39.38882751454842" lon="8.517420433630678"><ele>435.75</ele><time>2026-04-27T17:00:28.004Z</time></trkpt><trkpt lat="39.388775615198284" lon="8.517245459227516"><ele>437.5</ele><time>2026-04-27T17:00:29.004Z</time></trkpt><trkpt lat="39.388725406207506" lon="8.517065807306352"><ele>439.25</ele><time>2026-04-27T17:00:30.004Z</time></trkpt><trkpt lat="39.3886798879371" lon="8.51689105150602"><ele>441.0</ele><time>2026-04-27T17:00:31.004Z</time></trkpt><trkpt lat="39.388642415087055" lon="8.51673865061789"><ele>441.0</ele><time>2026-04-27T17:00:32.004Z</time></trkpt><trkpt lat="39.38861855003837" lon="8.516614244505819"><ele>441.0</ele><time>2026-04-27T17:00:33.004Z</time></trkpt><trkpt lat="39.388610013147826" lon="8.516494387154271"><ele>441.0</ele><time>2026-04-27T17:00:34.004Z</time></trkpt><trkpt lat="39.38861640833143" lon="8.516346193770882"><ele>441.0</ele><time>2026-04-27T17:00:35.004Z</time></trkpt><trkpt lat="39.38862418170851" lon="8.516197480766746"><ele>441.0</ele><time>2026-04-27T17:00:36.004Z</time></trkpt><trkpt lat="39.38862118081898" lon="8.516026023188356"><ele>439.20000000000005</ele><time>2026-04-27T17:00:37.004Z</time></trkpt><trkpt lat="39.388617551597186" lon="8.515881260128655"><ele>437.40000000000003</ele><time>2026-04-27T17:00:38.004Z</time></trkpt><trkpt lat="39.38859605370135" lon="8.515758805770552"><ele>435.6</ele><time>2026-04-27T17:00:39.004Z</time></trkpt><trkpt lat="39.38857838826742" lon="8.515628585259684"><ele>433.8</ele><time>2026-04-27T17:00:40.004Z</time></trkpt><trkpt lat="39.388527065319195" lon="8.515481809328918"><ele>432.0</ele><time>2026-04-27T17:00:41.004Z</time></trkpt><trkpt lat="39.38845892079984" lon="8.515333642307775"><ele>430.25</ele><time>2026-04-27T17:00:42.004Z</time></trkpt><trkpt lat="39.388380865381414" lon="8.515189698859666"><ele>428.5</ele><time>2026-04-27T17:00:43.004Z</time></trkpt><trkpt lat="39.38833002316625" lon="8.515032557295179"><ele>426.75</ele><time>2026-04-27T17:00:44.004Z</time></trkpt><trkpt lat="39.38828519055359" lon="8.514864807449793"><ele>425.0</ele><time>2026-04-27T17:00:45.004Z</time></trkpt><trkpt lat="39.38824460487808" lon="8.514708964856723"><ele>423.4</ele><time>2026-04-27T17:00:46.004Z</time></trkpt><trkpt lat="39.38821023596726" lon="8.514565913208138"><ele>421.8</ele><time>2026-04-27T17:00:47.004Z</time></trkpt><trkpt lat="39.38818234365588" lon="8.514435803877445"><ele>420.20000000000005</ele><time>2026-04-27T17:00:48.005Z</time></trkpt><trkpt lat="39.38818675804861" lon="8.51430944873059"><ele>418.6</ele><time>2026-04-27T17:00:49.005Z</time></trkpt><trkpt lat="39.388206580495826" lon="8.514176427048508"><ele>417.0</ele><time>2026-04-27T17:00:50.005Z</time></trkpt><trkpt lat="39.388243917076785" lon="8.51402859946532"><ele>417.0</ele><time>2026-04-27T17:00:51.005Z</time></trkpt><trkpt lat="39.388274881632874" lon="8.513869808162946"><ele>417.0</ele><time>2026-04-27T17:00:52.004Z</time></trkpt><trkpt lat="39.38828680209262" lon="8.513713580623566"><ele>417.0</ele><time>2026-04-27T17:00:53.004Z</time></trkpt><trkpt lat="39.3882835586276" lon="8.513554694232353"><ele>417.0</ele><time>2026-04-27T17:00:54.004Z</time></trkpt><trkpt lat="39.38830174098018" lon="8.5134235058553"><ele>417.20000000000005</ele><time>2026-04-27T17:00:55.004Z</time></trkpt><trkpt lat="39.388341347944774" lon="8.51331764527517"><ele>417.4</ele><time>2026-04-27T17:00:56.004Z</time></trkpt><trkpt lat="39.38840719150536" lon="8.513209536772079"><ele>417.6</ele><time>2026-04-27T17:00:57.004Z</time></trkpt><trkpt lat="39.388488912451024" lon="8.513105684564025"><ele>417.79999999999995</ele><time>2026-04-27T17:00:58.004Z</time></trkpt><trkpt lat="39.38856685786384" lon="8.512982189952124"><ele>418.0</ele><time>2026-04-27T17:00:59.004Z</time></trkpt><trkpt lat="39.38863934455142" lon="8.512842594657931"><ele>418.0</ele><time>2026-04-27T17:01:00.004Z</time></trkpt><trkpt lat="39.38870088631515" lon="8.512689672951216"><ele>418.0</ele><time>2026-04-27T17:01:01.005Z</time></trkpt><trkpt lat="39.38875578203805" lon="8.512526946002518"><ele>418.0</ele><time>2026-04-27T17:01:02.004Z</time></trkpt><trkpt lat="39.38881169678614" lon="8.512353491964939"><ele>418.0</ele><time>2026-04-27T17:01:03.004Z</time></trkpt><trkpt lat="39.388879197884826" lon="8.512163175898234"><ele>416.0</ele><time>2026-04-27T17:01:04.004Z</time></trkpt><trkpt lat="39.38894224567337" lon="8.51198089350329"><ele>414.0</ele><time>2026-04-27T17:01:05.004Z</time></trkpt><trkpt lat="39.38901253495636" lon="8.511815501907577"><ele>412.0</ele><time>2026-04-27T17:01:06.004Z</time></trkpt><trkpt lat="39.389090354399976" lon="8.511649571310983"><ele>412.0</ele><time>2026-04-27T17:01:07.004Z</time></trkpt><trkpt lat="39.389163953459025" lon="8.511477299239907"><ele>412.0</ele><time>2026-04-27T17:01:08.004Z</time></trkpt><trkpt lat="39.38924745628755" lon="8.511314772462864"><ele>412.0</ele><time>2026-04-27T17:01:09.004Z</time></trkpt><trkpt lat="39.38933042777826" lon="8.51115373307533"><ele>412.5</ele><time>2026-04-27T17:01:10.004Z</time></trkpt><trkpt lat="39.389424218979705" lon="8.510988833732288"><ele>413.0</ele><time>2026-04-27T17:01:11.004Z</time></trkpt><trkpt lat="39.38951244659677" lon="8.510832110361958"><ele>413.5</ele><time>2026-04-27T17:01:12.004Z</time></trkpt><trkpt lat="39.389596851480846" lon="8.510689860919769"><ele>414.0</ele><time>2026-04-27T17:01:13.005Z</time></trkpt><trkpt lat="39.389675702227656" lon="8.510551422249439"><ele>414.0</ele><time>2026-04-27T17:01:14.005Z</time></trkpt><trkpt lat="39.38974686466847" lon="8.510414193764545"><ele>414.0</ele><time>2026-04-27T17:01:15.005Z</time></trkpt><trkpt lat="39.38980348531128" lon="8.510281304414086"><ele>414.0</ele><time>2026-04-27T17:01:16.005Z</time></trkpt><trkpt lat="39.38987465208408" lon="8.510133559610379"><ele>414.0</ele><time>2026-04-27T17:01:17.005Z</time></trkpt><trkpt lat="39.38994131546325" lon="8.509989400916329"><ele>412.5</ele><time>2026-04-27T17:01:18.005Z</time></trkpt><trkpt lat="39.39000433568983" lon="8.509838567101733"><ele>411.0</ele><time>2026-04-27T17:01:19.005Z</time></trkpt><trkpt lat="39.39006212522254" lon="8.509695754139749"><ele>409.5</ele><time>2026-04-27T17:01:20.005Z</time></trkpt><trkpt lat="39.3901222372574" lon="8.509529865055393"><ele>408.0</ele><time>2026-04-27T17:01:21.005Z</time></trkpt><trkpt lat="39.39017778170076" lon="8.509364398308904"><ele>408.0</ele><time>2026-04-27T17:01:22.005Z</time></trkpt><trkpt lat="39.390245232882705" lon="8.509209142828254"><ele>408.0</ele><time>2026-04-27T17:01:23.005Z</time></trkpt><trkpt lat="39.390306810476424" lon="8.509057175179446"><ele>408.0</ele><time>2026-04-27T17:01:24.005Z</time></trkpt><trkpt lat="39.39037084748716" lon="8.508908504969563"><ele>408.0</ele><time>2026-04-27T17:01:25.005Z</time></trkpt><trkpt lat="39.3904235364566" lon="8.508758839945108"><ele>411.0</ele><time>2026-04-27T17:01:26.005Z</time></trkpt><trkpt lat="39.390489607995235" lon="8.508620616965647"><ele>414.0</ele><time>2026-04-27T17:01:27.005Z</time></trkpt><trkpt lat="39.39056835341948" lon="8.508494217075096"><ele>417.0</ele><time>2026-04-27T17:01:28.005Z</time></trkpt><trkpt lat="39.390648767376966" lon="8.508379753678685"><ele>420.0</ele><time>2026-04-27T17:01:29.005Z</time></trkpt><trkpt lat="39.39072236104259" lon="8.508293492296302"><ele>414.6666666666667</ele><time>2026-04-27T17:01:30.005Z</time></trkpt><trkpt lat="39.390797095432376" lon="8.508251175873625"><ele>409.33333333333337</ele><time>2026-04-27T17:01:31.005Z</time></trkpt><trkpt lat="39.390878517948835" lon="8.508214160778165"><ele>404.0</ele><time>2026-04-27T17:01:32.005Z</time></trkpt><trkpt lat="39.390982850567674" lon="8.508171977221995"><ele>398.6666666666667</ele><time>2026-04-27T17:01:33.005Z</time></trkpt><trkpt lat="39.39106430438365" lon="8.508130499342112"><ele>393.33333333333337</ele><time>2026-04-27T17:01:34.005Z</time></trkpt><trkpt lat="39.391118644755615" lon="8.508084086026079"><ele>388.0</ele><time>2026-04-27T17:01:35.005Z</time></trkpt><trkpt lat="39.39115976830999" lon="8.507995884155642"><ele>388.79999999999995</ele><time>2026-04-27T17:01:36.005Z</time></trkpt><trkpt lat="39.39120498541361" lon="8.507888097945651"><ele>389.6</ele><time>2026-04-27T17:01:37.005Z</time></trkpt><trkpt lat="39.391259323874884" lon="8.50777234964123"><ele>390.4</ele><time>2026-04-27T17:01:38.005Z</time></trkpt><trkpt lat="39.39131135717909" lon="8.507661164851676"><ele>391.20000000000005</ele><time>2026-04-27T17:01:39.005Z</time></trkpt><trkpt lat="39.39134196520476" lon="8.507573949646238"><ele>392.0</ele><time>2026-04-27T17:01:40.005Z</time></trkpt><trkpt lat="39.39134519206519" lon="8.507462219008051"><ele>390.0</ele><time>2026-04-27T17:01:41.005Z</time></trkpt><trkpt lat="39.39134176172456" lon="8.50733353484212"><ele>388.0</ele><time>2026-04-27T17:01:42.005Z</time></trkpt><trkpt lat="39.39134440475282" lon="8.507200467786832"><ele>386.0</ele><time>2026-04-27T17:01:43.005Z</time></trkpt><trkpt lat="39.39136577333521" lon="8.507051881927284"><ele>384.0</ele><time>2026-04-27T17:01:44.005Z</time></trkpt><trkpt lat="39.39140383711117" lon="8.506910731747833"><ele>382.0</ele><time>2026-04-27T17:01:45.005Z</time></trkpt><trkpt lat="39.39146389787956" lon="8.506797411146117"><ele>379.75</ele><time>2026-04-27T17:01:46.005Z</time></trkpt><trkpt lat="39.39153069834579" lon="8.5066840535824"><ele>377.5</ele><time>2026-04-27T17:01:47.005Z</time></trkpt><trkpt lat="39.391602568105235" lon="8.506557871726317"><ele>375.25</ele><time>2026-04-27T17:01:48.005Z</time></trkpt><trkpt lat="39.39166328784052" lon="8.50642575144124"><ele>373.0</ele><time>2026-04-27T17:01:49.005Z</time></trkpt><trkpt lat="39.391691819865656" lon="8.50628680087278"><ele>373.25</ele><time>2026-04-27T17:01:50.005Z</time></trkpt><trkpt lat="39.39169260365134" lon="8.506126935508858"><ele>373.5</ele><time>2026-04-27T17:01:51.005Z</time></trkpt><trkpt lat="39.39168837464089" lon="8.505966045873661"><ele>373.75</ele><time>2026-04-27T17:01:52.005Z</time></trkpt><trkpt lat="39.39168981568993" lon="8.505793632098738"><ele>374.0</ele><time>2026-04-27T17:01:53.005Z</time></trkpt><trkpt lat="39.39169658218152" lon="8.505643892839352"><ele>374.0</ele><time>2026-04-27T17:01:54.005Z</time></trkpt><trkpt lat="39.39170213920284" lon="8.505486624035138"><ele>374.0</ele><time>2026-04-27T17:01:55.005Z</time></trkpt><trkpt lat="39.39170539194492" lon="8.505341711801066"><ele>374.0</ele><time>2026-04-27T17:01:56.005Z</time></trkpt><trkpt lat="39.39196670335414" lon="8.505367759175744"><ele>375.5</ele><time>2026-04-27T17:01:57.005Z</time></trkpt><trkpt lat="39.39203822383538" lon="8.505228090893365"><ele>377.0</ele><time>2026-04-27T17:01:58.005Z</time></trkpt><trkpt lat="39.39211813176818" lon="8.505095154141072"><ele>378.5</ele><time>2026-04-27T17:01:59.005Z</time></trkpt><trkpt lat="39.3921945408823" lon="8.504969403585015"><ele>380.0</ele><time>2026-04-27T17:02:00.005Z</time></trkpt><trkpt lat="39.39226043070879" lon="8.504839196332071"><ele>377.4</ele><time>2026-04-27T17:02:01.005Z</time></trkpt><trkpt lat="39.392315834974845" lon="8.504705735727706"><ele>374.8</ele><time>2026-04-27T17:02:02.005Z</time></trkpt><trkpt lat="39.392359218355885" lon="8.504559727300995"><ele>372.20000000000005</ele><time>2026-04-27T17:02:03.005Z</time></trkpt><trkpt lat="39.39238462001453" lon="8.504418549433897"><ele>369.6</ele><time>2026-04-27T17:02:04.005Z</time></trkpt><trkpt lat="39.392393387277764" lon="8.50430653073267"><ele>367.0</ele><time>2026-04-27T17:02:05.005Z</time></trkpt><trkpt lat="39.39238616199339" lon="8.504197319588986"><ele>366.0</ele><time>2026-04-27T17:02:06.005Z</time></trkpt><trkpt lat="39.39235427244077" lon="8.504107342940204"><ele>365.0</ele><time>2026-04-27T17:02:07.005Z</time></trkpt><trkpt lat="39.39230399078528" lon="8.5040201504205"><ele>364.0</ele><time>2026-04-27T17:02:08.005Z</time></trkpt><trkpt lat="39.39222813048482" lon="8.503940605779656"><ele>363.0</ele><time>2026-04-27T17:02:09.005Z</time></trkpt><trkpt lat="39.39213924707038" lon="8.503854366657661"><ele>362.0</ele><time>2026-04-27T17:02:10.005Z</time></trkpt><trkpt lat="39.39205064348606" lon="8.503771411174586"><ele>362.40000000000003</ele><time>2026-04-27T17:02:11.005Z</time></trkpt><trkpt lat="39.39197052783753" lon="8.503680472948542"><ele>362.8</ele><time>2026-04-27T17:02:12.005Z</time></trkpt><trkpt lat="39.3918885786275" lon="8.50358615697689"><ele>363.2</ele><time>2026-04-27T17:02:13.005Z</time></trkpt><trkpt lat="39.391827411765654" lon="8.503479293784698"><ele>363.6</ele><time>2026-04-27T17:02:14.005Z</time></trkpt><trkpt lat="39.39177883198867" lon="8.503346810819629"><ele>364.0</ele><time>2026-04-27T17:02:15.005Z</time></trkpt><trkpt lat="39.39175308666005" lon="8.503210068205574"><ele>364.0</ele><time>2026-04-27T17:02:16.005Z</time></trkpt><trkpt lat="39.391736258398346" lon="8.503055123553517"><ele>364.0</ele><time>2026-04-27T17:02:17.005Z</time></trkpt><trkpt lat="39.391711245907494" lon="8.502901694183914"><ele>364.0</ele><time>2026-04-27T17:02:18.005Z</time></trkpt><trkpt lat="39.391668249713646" lon="8.50274425218452"><ele>364.0</ele><time>2026-04-27T17:02:19.005Z</time></trkpt><trkpt lat="39.391624247411244" lon="8.502581872267921"><ele>363.0</ele><time>2026-04-27T17:02:20.005Z</time></trkpt><trkpt lat="39.391578435899355" lon="8.502420282607071"><ele>362.0</ele><time>2026-04-27T17:02:21.005Z</time></trkpt><trkpt lat="39.39154016207043" lon="8.502252196126472"><ele>361.0</ele><time>2026-04-27T17:02:22.005Z</time></trkpt><trkpt lat="39.39151769270443" lon="8.502099461545743"><ele>360.0</ele><time>2026-04-27T17:02:23.005Z</time></trkpt><trkpt lat="39.39149791963895" lon="8.501937345079261"><ele>359.25</ele><time>2026-04-27T17:02:24.005Z</time></trkpt><trkpt lat="39.391496807382644" lon="8.501773658535326"><ele>358.5</ele><time>2026-04-27T17:02:25.005Z</time></trkpt><trkpt lat="39.39149924056975" lon="8.501620033708964"><ele>357.75</ele><time>2026-04-27T17:02:26.005Z</time></trkpt><trkpt lat="39.3915121604913" lon="8.501455268529943"><ele>357.0</ele><time>2026-04-27T17:02:27.005Z</time></trkpt><trkpt lat="39.391538244507345" lon="8.501287061981424"><ele>354.75</ele><time>2026-04-27T17:02:28.005Z</time></trkpt><trkpt lat="39.391564064122456" lon="8.50112866002686"><ele>352.5</ele><time>2026-04-27T17:02:29.005Z</time></trkpt><trkpt lat="39.391580276071096" lon="8.50097181320079"><ele>350.25</ele><time>2026-04-27T17:02:30.005Z</time></trkpt><trkpt lat="39.39157673740828" lon="8.500811728721239"><ele>348.0</ele><time>2026-04-27T17:02:31.005Z</time></trkpt><trkpt lat="39.39154990796456" lon="8.50065981281226"><ele>348.0</ele><time>2026-04-27T17:02:32.005Z</time></trkpt><trkpt lat="39.39154317654165" lon="8.50055283055047"><ele>348.0</ele><time>2026-04-27T17:02:33.005Z</time></trkpt><trkpt lat="39.3915194316924" lon="8.500436868079985"><ele>348.0</ele><time>2026-04-27T17:02:34.005Z</time></trkpt><trkpt lat="39.391483047899186" lon="8.500309584124281"><ele>348.0</ele><time>2026-04-27T17:02:35.005Z</time></trkpt><trkpt lat="39.39144944279528" lon="8.50017728084131"><ele>348.0</ele><time>2026-04-27T17:02:36.005Z</time></trkpt><trkpt lat="39.39142917655018" lon="8.500065036520798"><ele>347.0</ele><time>2026-04-27T17:02:37.005Z</time></trkpt><trkpt lat="39.391437659886094" lon="8.499954584080665"><ele>346.0</ele><time>2026-04-27T17:02:38.005Z</time></trkpt><trkpt lat="39.39146533704299" lon="8.4998517994419"><ele>345.0</ele><time>2026-04-27T17:02:39.005Z</time></trkpt><trkpt lat="39.391515150766935" lon="8.499759296031346"><ele>344.0</ele><time>2026-04-27T17:02:40.005Z</time></trkpt><trkpt lat="39.391557668963834" lon="8.499683056677307"><ele>343.0</ele><time>2026-04-27T17:02:41.005Z</time></trkpt><trkpt lat="39.391584878778005" lon="8.49960789238474"><ele>342.0</ele><time>2026-04-27T17:02:42.005Z</time></trkpt><trkpt lat="39.39159712187281" lon="8.499517952328798"><ele>342.0</ele><time>2026-04-27T17:02:43.005Z</time></trkpt><trkpt lat="39.39158318918191" lon="8.499418514825038"><ele>342.0</ele><time>2026-04-27T17:02:44.005Z</time></trkpt><trkpt lat="39.39153747248642" lon="8.499324169070308"><ele>342.0</ele><time>2026-04-27T17:02:45.005Z</time></trkpt><trkpt lat="39.39147121300344" lon="8.499224595835077"><ele>342.0</ele><time>2026-04-27T17:02:46.005Z</time></trkpt><trkpt lat="39.39138451608402" lon="8.499126502720651"><ele>342.0</ele><time>2026-04-27T17:02:47.005Z</time></trkpt><trkpt lat="39.39128802642362" lon="8.499025656182097"><ele>344.0</ele><time>2026-04-27T17:02:48.005Z</time></trkpt><trkpt lat="39.39117810066625" lon="8.498925166481467"><ele>346.0</ele><time>2026-04-27T17:02:49.005Z</time></trkpt><trkpt lat="39.39108202963756" lon="8.498817046282694"><ele>348.0</ele><time>2026-04-27T17:02:50.005Z</time></trkpt><trkpt lat="39.39100795136882" lon="8.498701750089465"><ele>350.0</ele><time>2026-04-27T17:02:51.005Z</time></trkpt><trkpt lat="39.3909624890368" lon="8.498576730561082"><ele>347.33333333333337</ele><time>2026-04-27T17:02:52.006Z</time></trkpt><trkpt lat="39.390949131266886" lon="8.49843965190819"><ele>344.6666666666667</ele><time>2026-04-27T17:02:53.006Z</time></trkpt><trkpt lat="39.39093787320243" lon="8.498326048248247"><ele>342.0</ele><time>2026-04-27T17:02:54.006Z</time></trkpt><trkpt lat="39.39089591561985" lon="8.498241850250656"><ele>339.3333333333333</ele><time>2026-04-27T17:02:55.006Z</time></trkpt><trkpt lat="39.390838922847934" lon="8.498191306185381"><ele>336.66666666666663</ele><time>2026-04-27T17:02:56.006Z</time></trkpt><trkpt lat="39.3907431281259" lon="8.498152820639042"><ele>334.0</ele><time>2026-04-27T17:02:57.006Z</time></trkpt><trkpt lat="39.39063264082292" lon="8.498118620806641"><ele>334.0</ele><time>2026-04-27T17:02:58.004Z</time></trkpt><trkpt lat="39.390537950434855" lon="8.498085105006322"><ele>334.0</ele><time>2026-04-27T17:02:59.004Z</time></trkpt><trkpt lat="39.39047329354035" lon="8.498033789605907"><ele>334.0</ele><time>2026-04-27T17:03:00.004Z</time></trkpt><trkpt lat="39.390438942519275" lon="8.497953144135083"><ele>334.0</ele><time>2026-04-27T17:03:01.005Z</time></trkpt><trkpt lat="39.39043532997834" lon="8.497859789535143"><ele>334.0</ele><time>2026-04-27T17:03:02.004Z</time></trkpt><trkpt lat="39.390454189818" lon="8.497759370500663"><ele>334.0</ele><time>2026-04-27T17:03:03.004Z</time></trkpt><trkpt lat="39.39049081741962" lon="8.497653938815798"><ele>333.79999999999995</ele><time>2026-04-27T17:03:04.005Z</time></trkpt><trkpt lat="39.390515838599114" lon="8.497539690391356"><ele>333.59999999999997</ele><time>2026-04-27T17:03:05.005Z</time></trkpt><trkpt lat="39.390540905971356" lon="8.49740529414428"><ele>333.4</ele><time>2026-04-27T17:03:06.005Z</time></trkpt><trkpt lat="39.39054555684825" lon="8.497266939905789"><ele>333.2</ele><time>2026-04-27T17:03:07.004Z</time></trkpt><trkpt lat="39.390548895480215" lon="8.497117261535756"><ele>333.0</ele><time>2026-04-27T17:03:08.004Z</time></trkpt><trkpt lat="39.390561412948756" lon="8.496966133755956"><ele>333.0</ele><time>2026-04-27T17:03:09.004Z</time></trkpt><trkpt lat="39.390592529412686" lon="8.496815137117286"><ele>333.0</ele><time>2026-04-27T17:03:10.005Z</time></trkpt><trkpt lat="39.39063098125581" lon="8.496680331997167"><ele>333.0</ele><time>2026-04-27T17:03:11.004Z</time></trkpt><trkpt lat="39.39066968301875" lon="8.496550531867127"><ele>333.0</ele><time>2026-04-27T17:03:12.004Z</time></trkpt><trkpt lat="39.39068946034112" lon="8.49643821598255"><ele>333.0</ele><time>2026-04-27T17:03:13.004Z</time></trkpt><trkpt lat="39.39067499165012" lon="8.496338143247277"><ele>333.0</ele><time>2026-04-27T17:03:14.004Z</time></trkpt><trkpt lat="39.39063030987318" lon="8.496253980555146"><ele>333.0</ele><time>2026-04-27T17:03:15.004Z</time></trkpt><trkpt lat="39.39056250133266" lon="8.496196303484867"><ele>333.0</ele><time>2026-04-27T17:03:16.004Z</time></trkpt><trkpt lat="39.39047545530369" lon="8.496153393416561"><ele>333.0</ele><time>2026-04-27T17:03:17.004Z</time></trkpt><trkpt lat="39.39039129520238" lon="8.496114739749983"><ele>333.0</ele><time>2026-04-27T17:03:18.004Z</time></trkpt><trkpt lat="39.39033414642125" lon="8.49604558758972"><ele>333.0</ele><time>2026-04-27T17:03:19.004Z</time></trkpt><trkpt lat="39.39030912810883" lon="8.495935108292583"><ele>333.4</ele><time>2026-04-27T17:03:20.004Z</time></trkpt><trkpt lat="39.39032645041353" lon="8.495822090965447"><ele>333.79999999999995</ele><time>2026-04-27T17:03:21.004Z</time></trkpt><trkpt lat="39.39036390592201" lon="8.495706599769614"><ele>334.2</ele><time>2026-04-27T17:03:22.004Z</time></trkpt><trkpt lat="39.39041205110189" lon="8.495586884409066"><ele>334.6</ele><time>2026-04-27T17:03:23.004Z</time></trkpt><trkpt lat="39.390454140882106" lon="8.49546810530348"><ele>335.0</ele><time>2026-04-27T17:03:24.004Z</time></trkpt><trkpt lat="39.3904664503836" lon="8.495323718423817"><ele>333.0</ele><time>2026-04-27T17:03:25.004Z</time></trkpt><trkpt lat="39.39044107737352" lon="8.495175765262962"><ele>331.0</ele><time>2026-04-27T17:03:26.004Z</time></trkpt><trkpt lat="39.39039317869322" lon="8.495036602424793"><ele>329.0</ele><time>2026-04-27T17:03:27.005Z</time></trkpt><trkpt lat="39.39032734113103" lon="8.494899866850739"><ele>327.0</ele><time>2026-04-27T17:03:28.005Z</time></trkpt><trkpt lat="39.39025901951279" lon="8.494765546609402"><ele>327.0</ele><time>2026-04-27T17:03:29.005Z</time></trkpt><trkpt lat="39.39018575599975" lon="8.494639908136437"><ele>327.0</ele><time>2026-04-27T17:03:30.005Z</time></trkpt><trkpt lat="39.390127327670626" lon="8.494512262017208"><ele>327.0</ele><time>2026-04-27T17:03:31.005Z</time></trkpt><trkpt lat="39.3900958244401" lon="8.49439242223221"><ele>327.0</ele><time>2026-04-27T17:03:32.005Z</time></trkpt><trkpt lat="39.390102755917866" lon="8.494279505768557"><ele>327.0</ele><time>2026-04-27T17:03:33.005Z</time></trkpt><trkpt lat="39.390120502824416" lon="8.494162992232095"><ele>324.5</ele><time>2026-04-27T17:03:34.005Z</time></trkpt><trkpt lat="39.390142876179404" lon="8.494036283716131"><ele>322.0</ele><time>2026-04-27T17:03:35.005Z</time></trkpt><trkpt lat="39.390193337330516" lon="8.493893319273564"><ele>319.5</ele><time>2026-04-27T17:03:36.005Z</time></trkpt><trkpt lat="39.39023515257305" lon="8.493718620927176"><ele>317.0</ele><time>2026-04-27T17:03:37.005Z</time></trkpt><trkpt lat="39.39028067521276" lon="8.493540221747985"><ele>315.33333333333337</ele><time>2026-04-27T17:03:38.005Z</time></trkpt><trkpt lat="39.39032653959997" lon="8.493360742721295"><ele>313.6666666666667</ele><time>2026-04-27T17:03:39.005Z</time></trkpt><trkpt lat="39.390374528369996" lon="8.493176555733239"><ele>312.0</ele><time>2026-04-27T17:03:40.005Z</time></trkpt><trkpt lat="39.39042887283893" lon="8.492987167086428"><ele>310.0</ele><time>2026-04-27T17:03:41.005Z</time></trkpt><trkpt lat="39.390468791091294" lon="8.492797660599505"><ele>308.0</ele><time>2026-04-27T17:03:42.005Z</time></trkpt><trkpt lat="39.390507722851474" lon="8.492594414814864"><ele>306.0</ele><time>2026-04-27T17:03:43.005Z</time></trkpt><trkpt lat="39.39053861446495" lon="8.492388357100237"><ele>313.6666666666667</ele><time>2026-04-27T17:03:44.005Z</time></trkpt><trkpt lat="39.39057049040857" lon="8.492164769471618"><ele>321.33333333333337</ele><time>2026-04-27T17:03:45.005Z</time></trkpt><trkpt lat="39.39059645811287" lon="8.491940749140241"><ele>329.0</ele><time>2026-04-27T17:03:46.005Z</time></trkpt><trkpt lat="39.39063070259129" lon="8.491702413436295"><ele>329.0</ele><time>2026-04-27T17:03:47.005Z</time></trkpt><trkpt lat="39.390664771493554" lon="8.49146977225302"><ele>329.0</ele><time>2026-04-27T17:03:48.005Z</time></trkpt><trkpt lat="39.39069788119517" lon="8.491236615654937"><ele>329.0</ele><time>2026-04-27T17:03:49.005Z</time></trkpt><trkpt lat="39.390730556636235" lon="8.490991412125128"><ele>325.6666666666667</ele><time>2026-04-27T17:03:50.005Z</time></trkpt><trkpt lat="39.390765887856546" lon="8.490745853841434"><ele>322.3333333333333</ele><time>2026-04-27T17:03:51.005Z</time></trkpt><trkpt lat="39.39080412993835" lon="8.490501890308567"><ele>319.0</ele><time>2026-04-27T17:03:52.005Z</time></trkpt><trkpt lat="39.39083661949895" lon="8.490253846042469"><ele>317.0</ele><time>2026-04-27T17:03:53.005Z</time></trkpt><trkpt lat="39.390866913290225" lon="8.49000618554498"><ele>315.0</ele><time>2026-04-27T17:03:54.005Z</time></trkpt><trkpt lat="39.39090228334928" lon="8.489774457872686"><ele>313.0</ele><time>2026-04-27T17:03:55.005Z</time></trkpt><trkpt lat="39.39093903070384" lon="8.489545179738316"><ele>312.3333333333333</ele><time>2026-04-27T17:03:56.005Z</time></trkpt><trkpt lat="39.39095925049875" lon="8.489314384305619"><ele>311.6666666666667</ele><time>2026-04-27T17:03:57.005Z</time></trkpt><trkpt lat="39.390959557842145" lon="8.4890943710968"><ele>311.0</ele><time>2026-04-27T17:03:58.005Z</time></trkpt><trkpt lat="39.39094587646162" lon="8.488861115294744"><ele>309.33333333333337</ele><time>2026-04-27T17:03:59.005Z</time></trkpt><trkpt lat="39.390921162751425" lon="8.488631853579674"><ele>307.6666666666667</ele><time>2026-04-27T17:04:00.005Z</time></trkpt><trkpt lat="39.39089348123399" lon="8.488405610525021"><ele>306.0</ele><time>2026-04-27T17:04:01.005Z</time></trkpt><trkpt lat="39.39085689041888" lon="8.488168960967695"><ele>306.3333333333333</ele><time>2026-04-27T17:04:02.005Z</time></trkpt><trkpt lat="39.390808085219696" lon="8.487925874209095"><ele>306.66666666666663</ele><time>2026-04-27T17:04:03.005Z</time></trkpt><trkpt lat="39.39075354501901" lon="8.48767347280191"><ele>307.0</ele><time>2026-04-27T17:04:04.005Z</time></trkpt><trkpt lat="39.390702808166665" lon="8.487422760629691"><ele>307.0</ele><time>2026-04-27T17:04:05.005Z</time></trkpt><trkpt lat="39.39065374152659" lon="8.487190779091108"><ele>307.0</ele><time>2026-04-27T17:04:06.005Z</time></trkpt><trkpt lat="39.39062126603811" lon="8.48698234013092"><ele>307.0</ele><time>2026-04-27T17:04:07.005Z</time></trkpt><trkpt lat="39.390580625594495" lon="8.486783359833215"><ele>307.66666666666663</ele><time>2026-04-27T17:04:08.005Z</time></trkpt><trkpt lat="39.390552713070456" lon="8.486582838427145"><ele>308.3333333333333</ele><time>2026-04-27T17:04:09.005Z</time></trkpt><trkpt lat="39.39053612238297" lon="8.486385887299873"><ele>309.0</ele><time>2026-04-27T17:04:10.005Z</time></trkpt><trkpt lat="39.39053535300198" lon="8.486205636202683"><ele>309.0</ele><time>2026-04-27T17:04:11.005Z</time></trkpt><trkpt lat="39.39055466828877" lon="8.48602530048959"><ele>309.0</ele><time>2026-04-27T17:04:12.005Z</time></trkpt><trkpt lat="39.39061042098425" lon="8.485846972011029"><ele>309.0</ele><time>2026-04-27T17:04:13.005Z</time></trkpt><trkpt lat="39.39068402609545" lon="8.485682216234594"><ele>309.0</ele><time>2026-04-27T17:04:14.005Z</time></trkpt><trkpt lat="39.39077391801883" lon="8.48550808690641"><ele>305.3333333333333</ele><time>2026-04-27T17:04:15.005Z</time></trkpt><trkpt lat="39.390870487928794" lon="8.485324518353604"><ele>301.66666666666663</ele><time>2026-04-27T17:04:16.005Z</time></trkpt><trkpt lat="39.390968663655634" lon="8.485125548776388"><ele>298.0</ele><time>2026-04-27T17:04:17.005Z</time></trkpt><trkpt lat="39.391066439873484" lon="8.484923109823857"><ele>298.0</ele><time>2026-04-27T17:04:18.005Z</time></trkpt><trkpt lat="39.39116617499943" lon="8.484713406290544"><ele>298.0</ele><time>2026-04-27T17:04:19.005Z</time></trkpt><trkpt lat="39.39128142908227" lon="8.484512790648006"><ele>298.0</ele><time>2026-04-27T17:04:20.005Z</time></trkpt><trkpt lat="39.39138465172241" lon="8.484307464854366"><ele>296.66666666666663</ele><time>2026-04-27T17:04:21.005Z</time></trkpt><trkpt lat="39.39147258983958" lon="8.48412325535011"><ele>295.3333333333333</ele><time>2026-04-27T17:04:22.005Z</time></trkpt><trkpt lat="39.39154578181782" lon="8.483934570494576"><ele>294.0</ele><time>2026-04-27T17:04:23.005Z</time></trkpt><trkpt lat="39.39159788271961" lon="8.483754431832455"><ele>294.0</ele><time>2026-04-27T17:04:24.005Z</time></trkpt><trkpt lat="39.3916311901297" lon="8.483553453800617"><ele>294.0</ele><time>2026-04-27T17:04:25.005Z</time></trkpt><trkpt lat="39.391655691160864" lon="8.483353986547675"><ele>294.0</ele><time>2026-04-27T17:04:26.005Z</time></trkpt><trkpt lat="39.39168696839251" lon="8.483183028865936"><ele>294.0</ele><time>2026-04-27T17:04:27.005Z</time></trkpt><trkpt lat="39.39174662658127" lon="8.483033844142103"><ele>294.0</ele><time>2026-04-27T17:04:28.005Z</time></trkpt><trkpt lat="39.391830046478816" lon="8.482881934441307"><ele>294.0</ele><time>2026-04-27T17:04:29.005Z</time></trkpt><trkpt lat="39.3919512051913" lon="8.482745019276047"><ele>294.0</ele><time>2026-04-27T17:04:30.005Z</time></trkpt><trkpt lat="39.39207007536142" lon="8.48259174799295"><ele>296.0</ele><time>2026-04-27T17:04:31.005Z</time></trkpt><trkpt lat="39.392186889590775" lon="8.482456918370262"><ele>298.0</ele><time>2026-04-27T17:04:32.005Z</time></trkpt><trkpt lat="39.39229990617415" lon="8.4823107108597"><ele>300.0</ele><time>2026-04-27T17:04:33.005Z</time></trkpt><trkpt lat="39.39240153933496" lon="8.482183687384588"><ele>299.8</ele><time>2026-04-27T17:04:34.005Z</time></trkpt><trkpt lat="39.39245535867409" lon="8.48209502581577"><ele>299.6</ele><time>2026-04-27T17:04:35.005Z</time></trkpt><trkpt lat="39.392483332107055" lon="8.48199079586112"><ele>299.4</ele><time>2026-04-27T17:04:36.005Z</time></trkpt><trkpt lat="39.39249773309253" lon="8.481869013808527"><ele>299.2</ele><time>2026-04-27T17:04:37.005Z</time></trkpt><trkpt lat="39.392472812197916" lon="8.481760617924351"><ele>299.0</ele><time>2026-04-27T17:04:38.005Z</time></trkpt><trkpt lat="39.39242119175319" lon="8.481655334433013"><ele>299.0</ele><time>2026-04-27T17:04:39.005Z</time></trkpt><trkpt lat="39.39234304751479" lon="8.481544640358798"><ele>299.0</ele><time>2026-04-27T17:04:40.005Z</time></trkpt><trkpt lat="39.39224940042712" lon="8.481448508886842"><ele>299.0</ele><time>2026-04-27T17:04:41.005Z</time></trkpt><trkpt lat="39.39214551818208" lon="8.481370955306987"><ele>299.0</ele><time>2026-04-27T17:04:42.005Z</time></trkpt><trkpt lat="39.392039876759256" lon="8.481312668898727"><ele>298.25</ele><time>2026-04-27T17:04:43.005Z</time></trkpt><trkpt lat="39.391920520187576" lon="8.481297443109922"><ele>297.5</ele><time>2026-04-27T17:04:44.005Z</time></trkpt><trkpt lat="39.39180675296188" lon="8.481290279818769"><ele>296.75</ele><time>2026-04-27T17:04:45.005Z</time></trkpt><trkpt lat="39.39168543938557" lon="8.481312453789743"><ele>296.0</ele><time>2026-04-27T17:04:46.005Z</time></trkpt><trkpt lat="39.391561269731646" lon="8.481335756430637"><ele>296.0</ele><time>2026-04-27T17:04:47.005Z</time></trkpt><trkpt lat="39.39142844463409" lon="8.481352546053579"><ele>296.0</ele><time>2026-04-27T17:04:48.005Z</time></trkpt><trkpt lat="39.39128664877028" lon="8.481365689339919"><ele>296.0</ele><time>2026-04-27T17:04:49.005Z</time></trkpt><trkpt lat="39.39113847951862" lon="8.481391685467209"><ele>296.0</ele><time>2026-04-27T17:04:50.005Z</time></trkpt><trkpt lat="39.39098948730188" lon="8.481418255817186"><ele>298.6666666666667</ele><time>2026-04-27T17:04:51.005Z</time></trkpt><trkpt lat="39.39085596342639" lon="8.481430504169111"><ele>301.3333333333333</ele><time>2026-04-27T17:04:52.005Z</time></trkpt><trkpt lat="39.39070284847747" lon="8.481465830128327"><ele>304.0</ele><time>2026-04-27T17:04:53.005Z</time></trkpt><trkpt lat="39.39054330534362" lon="8.481495881708696"><ele>305.0</ele><time>2026-04-27T17:04:54.005Z</time></trkpt><trkpt lat="39.390391768604594" lon="8.481524164894235"><ele>306.0</ele><time>2026-04-27T17:04:55.005Z</time></trkpt><trkpt lat="39.39024114534297" lon="8.481553933969879"><ele>307.0</ele><time>2026-04-27T17:04:56.005Z</time></trkpt><trkpt lat="39.390098989976465" lon="8.481568121105202"><ele>308.0</ele><time>2026-04-27T17:04:57.005Z</time></trkpt><trkpt lat="39.3899667269025" lon="8.481562414348598"><ele>308.0</ele><time>2026-04-27T17:04:58.005Z</time></trkpt><trkpt lat="39.38982554738821" lon="8.481531137947563"><ele>308.0</ele><time>2026-04-27T17:04:59.005Z</time></trkpt><trkpt lat="39.38969067149083" lon="8.481470521144667"><ele>308.0</ele><time>2026-04-27T17:05:00.005Z</time></trkpt><trkpt lat="39.38955918258617" lon="8.481377860214428"><ele>308.0</ele><time>2026-04-27T17:05:01.005Z</time></trkpt><trkpt lat="39.389430305939484" lon="8.481268761662523"><ele>310.33333333333337</ele><time>2026-04-27T17:05:02.005Z</time></trkpt><trkpt lat="39.38929877149572" lon="8.481161159488925"><ele>312.6666666666667</ele><time>2026-04-27T17:05:03.005Z</time></trkpt><trkpt lat="39.38917568642428" lon="8.481045008021951"><ele>315.0</ele><time>2026-04-27T17:05:04.005Z</time></trkpt><trkpt lat="39.38906558914346" lon="8.480926216979896"><ele>315.0</ele><time>2026-04-27T17:05:05.005Z</time></trkpt><trkpt lat="39.388976417322745" lon="8.480821028319221"><ele>315.0</ele><time>2026-04-27T17:05:06.005Z</time></trkpt><trkpt lat="39.388911798476386" lon="8.480727785513311"><ele>315.0</ele><time>2026-04-27T17:05:07.005Z</time></trkpt><trkpt lat="39.38886317700568" lon="8.480646691197075"><ele>315.0</ele><time>2026-04-27T17:05:08.005Z</time></trkpt><trkpt lat="39.38877729572321" lon="8.48058020073656"><ele>315.0</ele><time>2026-04-27T17:05:10.005Z</time></trkpt><trkpt lat="39.38867050362137" lon="8.480611951532625"><ele>317.3333333333333</ele><time>2026-04-27T17:05:12.005Z</time></trkpt><trkpt lat="39.38860149197543" lon="8.480674183764878"><ele>319.6666666666667</ele><time>2026-04-27T17:05:13.006Z</time></trkpt><trkpt lat="39.38853327520228" lon="8.480755575503414"><ele>322.0</ele><time>2026-04-27T17:05:14.006Z</time></trkpt><trkpt lat="39.38851887305681" lon="8.480890062684395"><ele>324.33333333333337</ele><time>2026-04-27T17:05:15.006Z</time></trkpt><trkpt lat="39.38852126550783" lon="8.480987289422636"><ele>326.6666666666667</ele><time>2026-04-27T17:05:16.005Z</time></trkpt><trkpt lat="39.38855728012504" lon="8.481082080408736"><ele>329.0</ele><time>2026-04-27T17:05:17.005Z</time></trkpt><trkpt lat="39.38862284615342" lon="8.481160263127723"><ele>329.0</ele><time>2026-04-27T17:05:18.005Z</time></trkpt><trkpt lat="39.388693819715144" lon="8.48124972580932"><ele>329.0</ele><time>2026-04-27T17:05:19.005Z</time></trkpt><trkpt lat="39.38875916788622" lon="8.481302196258444"><ele>329.0</ele><time>2026-04-27T17:05:20.005Z</time></trkpt><trkpt lat="39.38882276594629" lon="8.481408201724987"><ele>329.0</ele><time>2026-04-27T17:05:21.005Z</time></trkpt><trkpt lat="39.388875156997656" lon="8.481557714580582"><ele>329.0</ele><time>2026-04-27T17:05:22.005Z</time></trkpt><trkpt lat="39.38893585337852" lon="8.481711981089648"><ele>330.75</ele><time>2026-04-27T17:05:23.005Z</time></trkpt><trkpt lat="39.38899495363532" lon="8.481873294548867"><ele>332.5</ele><time>2026-04-27T17:05:24.005Z</time></trkpt><trkpt lat="39.38905506692894" lon="8.4820168940431"><ele>334.25</ele><time>2026-04-27T17:05:25.005Z</time></trkpt><trkpt lat="39.389127929033044" lon="8.482106981730418"><ele>336.0</ele><time>2026-04-27T17:05:26.005Z</time></trkpt><trkpt lat="39.38922784274298" lon="8.482166938210964"><ele>336.0</ele><time>2026-04-27T17:05:27.005Z</time></trkpt><trkpt lat="39.3893439966619" lon="8.482197746355222"><ele>336.0</ele><time>2026-04-27T17:05:28.005Z</time></trkpt><trkpt lat="39.38946270158131" lon="8.4822260447531"><ele>336.0</ele><time>2026-04-27T17:05:29.005Z</time></trkpt><trkpt lat="39.38959226688058" lon="8.482265510702128"><ele>336.0</ele><time>2026-04-27T17:05:30.005Z</time></trkpt><trkpt lat="39.38972394709229" lon="8.482327382024415"><ele>333.0</ele><time>2026-04-27T17:05:31.005Z</time></trkpt><trkpt lat="39.38985698270065" lon="8.482403141222717"><ele>330.0</ele><time>2026-04-27T17:05:32.005Z</time></trkpt><trkpt lat="39.3899936072722" lon="8.482476213721869"><ele>327.0</ele><time>2026-04-27T17:05:33.005Z</time></trkpt><trkpt lat="39.3901299679645" lon="8.482540893366021"><ele>324.0</ele><time>2026-04-27T17:05:34.005Z</time></trkpt><trkpt lat="39.39026180147143" lon="8.482583284676236"><ele>324.0</ele><time>2026-04-27T17:05:35.005Z</time></trkpt><trkpt lat="39.390392900553145" lon="8.482588093854487"><ele>324.0</ele><time>2026-04-27T17:05:36.005Z</time></trkpt><trkpt lat="39.39051100983931" lon="8.48257687968428"><ele>324.0</ele><time>2026-04-27T17:05:37.005Z</time></trkpt><trkpt lat="39.39061162756498" lon="8.482581579278605"><ele>324.0</ele><time>2026-04-27T17:05:38.005Z</time></trkpt><trkpt lat="39.390686814308914" lon="8.482612267765477"><ele>324.0</ele><time>2026-04-27T17:05:39.005Z</time></trkpt><trkpt lat="39.39073376479266" lon="8.482669179044704"><ele>323.0</ele><time>2026-04-27T17:05:40.005Z</time></trkpt><trkpt lat="39.39073928009933" lon="8.482760639942516"><ele>322.0</ele><time>2026-04-27T17:05:41.005Z</time></trkpt><trkpt lat="39.39070682812441" lon="8.482851629038002"><ele>321.0</ele><time>2026-04-27T17:05:42.005Z</time></trkpt><trkpt lat="39.390651833919186" lon="8.482928912503878"><ele>320.0</ele><time>2026-04-27T17:05:43.005Z</time></trkpt><trkpt lat="39.390577083185256" lon="8.483008348698762"><ele>319.0</ele><time>2026-04-27T17:05:44.005Z</time></trkpt><trkpt lat="39.390487314073816" lon="8.483097320561486"><ele>318.0</ele><time>2026-04-27T17:05:45.005Z</time></trkpt><trkpt lat="39.39038683477011" lon="8.483170690289281"><ele>322.0</ele><time>2026-04-27T17:05:46.005Z</time></trkpt><trkpt lat="39.39026756467968" lon="8.483232821872502"><ele>326.0</ele><time>2026-04-27T17:05:47.005Z</time></trkpt><trkpt lat="39.39014460454777" lon="8.483267198599576"><ele>330.0</ele><time>2026-04-27T17:05:48.005Z</time></trkpt><trkpt lat="39.39003114540655" lon="8.483332956524501"><ele>334.0</ele><time>2026-04-27T17:05:49.005Z</time></trkpt><trkpt lat="39.38990874234288" lon="8.48345436534144"><ele>334.0</ele><time>2026-04-27T17:05:50.005Z</time></trkpt><trkpt lat="39.389787396516404" lon="8.483565028946963"><ele>334.0</ele><time>2026-04-27T17:05:51.005Z</time></trkpt><trkpt lat="39.38966166706473" lon="8.483680567876306"><ele>334.0</ele><time>2026-04-27T17:05:52.005Z</time></trkpt><trkpt lat="39.389522658045415" lon="8.483795846572155"><ele>337.0</ele><time>2026-04-27T17:05:53.005Z</time></trkpt><trkpt lat="39.38938017308356" lon="8.483894771508526"><ele>340.0</ele><time>2026-04-27T17:05:54.005Z</time></trkpt><trkpt lat="39.38923710713323" lon="8.483964615762044"><ele>343.0</ele><time>2026-04-27T17:05:55.005Z</time></trkpt><trkpt lat="39.389110915960615" lon="8.484040848019188"><ele>343.0</ele><time>2026-04-27T17:05:56.005Z</time></trkpt><trkpt lat="39.38898966263482" lon="8.48413814591206"><ele>343.0</ele><time>2026-04-27T17:05:57.005Z</time></trkpt><trkpt lat="39.38888391724258" lon="8.484270876483373"><ele>343.0</ele><time>2026-04-27T17:05:58.005Z</time></trkpt><trkpt lat="39.38877869986781" lon="8.484406479797983"><ele>343.0</ele><time>2026-04-27T17:05:59.005Z</time></trkpt><trkpt lat="39.388660587376755" lon="8.484549066551907"><ele>346.0</ele><time>2026-04-27T17:06:00.005Z</time></trkpt><trkpt lat="39.3885316356152" lon="8.484679247232876"><ele>349.0</ele><time>2026-04-27T17:06:01.005Z</time></trkpt><trkpt lat="39.38837934243291" lon="8.484788423066341"><ele>352.0</ele><time>2026-04-27T17:06:02.005Z</time></trkpt><trkpt lat="39.3882399679507" lon="8.484888831357555"><ele>352.0</ele><time>2026-04-27T17:06:03.005Z</time></trkpt><trkpt lat="39.388109076358276" lon="8.484987641383448"><ele>352.0</ele><time>2026-04-27T17:06:04.005Z</time></trkpt><trkpt lat="39.38799230482598" lon="8.485074037806593"><ele>352.0</ele><time>2026-04-27T17:06:05.005Z</time></trkpt><trkpt lat="39.3879099737813" lon="8.485146620476923"><ele>352.0</ele><time>2026-04-27T17:06:06.005Z</time></trkpt><trkpt lat="39.38787477346741" lon="8.485221285212063"><ele>352.6</ele><time>2026-04-27T17:06:07.005Z</time></trkpt><trkpt lat="39.38791604887246" lon="8.485396320332155"><ele>353.20000000000005</ele><time>2026-04-27T17:06:09.005Z</time></trkpt><trkpt lat="39.387974089739174" lon="8.485503092887452"><ele>353.8</ele><time>2026-04-27T17:06:10.005Z</time></trkpt><trkpt lat="39.38803873498473" lon="8.485589556986609"><ele>354.4</ele><time>2026-04-27T17:06:11.005Z</time></trkpt><trkpt lat="39.388125819015364" lon="8.485662863051934"><ele>355.0</ele><time>2026-04-27T17:06:12.005Z</time></trkpt><trkpt lat="39.38823045818403" lon="8.485742088856815"><ele>355.0</ele><time>2026-04-27T17:06:13.005Z</time></trkpt><trkpt lat="39.38831600491749" lon="8.48584247196239"><ele>355.0</ele><time>2026-04-27T17:06:14.005Z</time></trkpt><trkpt lat="39.38836631432449" lon="8.485984510066134"><ele>355.0</ele><time>2026-04-27T17:06:15.005Z</time></trkpt><trkpt lat="39.3883876027961" lon="8.486150057467624"><ele>355.0</ele><time>2026-04-27T17:06:16.005Z</time></trkpt><trkpt lat="39.38840618373037" lon="8.486314468097758"><ele>357.5</ele><time>2026-04-27T17:06:17.006Z</time></trkpt><trkpt lat="39.38840612638901" lon="8.486480929130517"><ele>360.0</ele><time>2026-04-27T17:06:18.006Z</time></trkpt><trkpt lat="39.38837146071919" lon="8.486643889702712"><ele>362.5</ele><time>2026-04-27T17:06:19.006Z</time></trkpt><trkpt lat="39.38830045776789" lon="8.486783865145624"><ele>365.0</ele><time>2026-04-27T17:06:20.006Z</time></trkpt><trkpt lat="39.38823366903288" lon="8.486903596450322"><ele>365.0</ele><time>2026-04-27T17:06:21.006Z</time></trkpt><trkpt lat="39.3881507993864" lon="8.487025874208392"><ele>365.0</ele><time>2026-04-27T17:06:22.006Z</time></trkpt><trkpt lat="39.38809650689361" lon="8.487147281263242"><ele>365.0</ele><time>2026-04-27T17:06:23.006Z</time></trkpt><trkpt lat="39.3880847340234" lon="8.48725929546947"><ele>365.0</ele><time>2026-04-27T17:06:24.006Z</time></trkpt><trkpt lat="39.38811953613663" lon="8.487391380952408"><ele>365.0</ele><time>2026-04-27T17:06:25.006Z</time></trkpt><trkpt lat="39.388158079614286" lon="8.487541581391561"><ele>364.6</ele><time>2026-04-27T17:06:26.006Z</time></trkpt><trkpt lat="39.38820053899544" lon="8.487683073949324"><ele>364.2</ele><time>2026-04-27T17:06:27.006Z</time></trkpt><trkpt lat="39.38820813741044" lon="8.487802566587087"><ele>363.79999999999995</ele><time>2026-04-27T17:06:28.006Z</time></trkpt><trkpt lat="39.388179028346165" lon="8.487905234267133"><ele>363.4</ele><time>2026-04-27T17:06:29.006Z</time></trkpt><trkpt lat="39.38803167680411" lon="8.487966270819546"><ele>363.0</ele><time>2026-04-27T17:06:31.006Z</time></trkpt><trkpt lat="39.38795056839783" lon="8.487930568744773"><ele>366.2</ele><time>2026-04-27T17:06:32.006Z</time></trkpt><trkpt lat="39.3878764871558" lon="8.487852191172568"><ele>369.4</ele><time>2026-04-27T17:06:33.006Z</time></trkpt><trkpt lat="39.387815800072765" lon="8.487741062979422"><ele>372.59999999999997</ele><time>2026-04-27T17:06:34.006Z</time></trkpt><trkpt lat="39.387767920419314" lon="8.48760030136495"><ele>375.79999999999995</ele><time>2026-04-27T17:06:35.006Z</time></trkpt><trkpt lat="39.387720195210704" lon="8.487446073806654"><ele>379.0</ele><time>2026-04-27T17:06:36.006Z</time></trkpt><trkpt lat="39.38768199877599" lon="8.487311103393209"><ele>379.0</ele><time>2026-04-27T17:06:37.006Z</time></trkpt><trkpt lat="39.387629144732905" lon="8.487209433237185"><ele>379.0</ele><time>2026-04-27T17:06:38.006Z</time></trkpt><trkpt lat="39.38755627574494" lon="8.487148711277184"><ele>379.0</ele><time>2026-04-27T17:06:39.006Z</time></trkpt><trkpt lat="39.387467230316894" lon="8.487141751831851"><ele>379.0</ele><time>2026-04-27T17:06:40.006Z</time></trkpt><trkpt lat="39.38738785419216" lon="8.487156180147498"><ele>379.0</ele><time>2026-04-27T17:06:41.006Z</time></trkpt><trkpt lat="39.38731998379358" lon="8.487229015307982"><ele>379.0</ele><time>2026-04-27T17:06:42.006Z</time></trkpt><trkpt lat="39.38727893286423" lon="8.487321770420014"><ele>379.0</ele><time>2026-04-27T17:06:43.006Z</time></trkpt><trkpt lat="39.38725544847933" lon="8.487443072095491"><ele>379.0</ele><time>2026-04-27T17:06:44.006Z</time></trkpt><trkpt lat="39.387241405616216" lon="8.48759508653052"><ele>379.0</ele><time>2026-04-27T17:06:45.006Z</time></trkpt><trkpt lat="39.3872339990497" lon="8.487789700206072"><ele>379.0</ele><time>2026-04-27T17:06:46.006Z</time></trkpt><trkpt lat="39.38721541755803" lon="8.487939498896427"><ele>376.79999999999995</ele><time>2026-04-27T17:06:47.006Z</time></trkpt><trkpt lat="39.387198880789185" lon="8.488094102358003"><ele>374.59999999999997</ele><time>2026-04-27T17:06:48.006Z</time></trkpt><trkpt lat="39.38716070139896" lon="8.488223651468662"><ele>372.4</ele><time>2026-04-27T17:06:49.006Z</time></trkpt><trkpt lat="39.38710423238581" lon="8.488309940878217"><ele>370.2</ele><time>2026-04-27T17:06:50.006Z</time></trkpt><trkpt lat="39.387021702065276" lon="8.488373972563702"><ele>368.0</ele><time>2026-04-27T17:06:51.006Z</time></trkpt><trkpt lat="39.386912228476234" lon="8.488419788984285"><ele>374.5</ele><time>2026-04-27T17:06:52.006Z</time></trkpt><trkpt lat="39.3867864363789" lon="8.488458088987418"><ele>381.0</ele><time>2026-04-27T17:06:53.006Z</time></trkpt><trkpt lat="39.386664086393445" lon="8.488538062124588"><ele>387.5</ele><time>2026-04-27T17:06:54.006Z</time></trkpt><trkpt lat="39.3865448245876" lon="8.488646766550204"><ele>394.0</ele><time>2026-04-27T17:06:55.006Z</time></trkpt><trkpt lat="39.38641892970004" lon="8.488756566894823"><ele>394.25</ele><time>2026-04-27T17:06:56.006Z</time></trkpt><trkpt lat="39.38628856017145" lon="8.488862302034127"><ele>394.5</ele><time>2026-04-27T17:06:57.006Z</time></trkpt><trkpt lat="39.386162879467356" lon="8.488929433236224"><ele>394.75</ele><time>2026-04-27T17:06:58.006Z</time></trkpt><trkpt lat="39.38604114131447" lon="8.48896544310734"><ele>395.0</ele><time>2026-04-27T17:06:59.006Z</time></trkpt><trkpt lat="39.38593426391475" lon="8.488974329975157"><ele>395.0</ele><time>2026-04-27T17:07:00.006Z</time></trkpt><trkpt lat="39.38581593940634" lon="8.488939467839291"><ele>395.0</ele><time>2026-04-27T17:07:01.006Z</time></trkpt><trkpt lat="39.38569283002876" lon="8.488882649628563"><ele>395.0</ele><time>2026-04-27T17:07:02.006Z</time></trkpt><trkpt lat="39.385584129471496" lon="8.488829158906915"><ele>395.0</ele><time>2026-04-27T17:07:03.006Z</time></trkpt><trkpt lat="39.38547956514558" lon="8.488812578497956"><ele>399.6</ele><time>2026-04-27T17:07:04.006Z</time></trkpt><trkpt lat="39.38540294265606" lon="8.488861606362066"><ele>404.2</ele><time>2026-04-27T17:07:05.006Z</time></trkpt><trkpt lat="39.38535161502633" lon="8.488925346464937"><ele>408.79999999999995</ele><time>2026-04-27T17:07:06.006Z</time></trkpt><trkpt lat="39.38532159269515" lon="8.489084182173478"><ele>413.4</ele><time>2026-04-27T17:07:08.006Z</time></trkpt><trkpt lat="39.38529111560978" lon="8.489254777196653"><ele>418.0</ele><time>2026-04-27T17:07:09.006Z</time></trkpt><trkpt lat="39.38529021368268" lon="8.489426011206232"><ele>418.0</ele><time>2026-04-27T17:07:10.006Z</time></trkpt><trkpt lat="39.3852940093402" lon="8.48957326287773"><ele>418.0</ele><time>2026-04-27T17:07:11.006Z</time></trkpt><trkpt lat="39.385309068374056" lon="8.489691714324962"><ele>418.0</ele><time>2026-04-27T17:07:12.006Z</time></trkpt><trkpt lat="39.38536102183132" lon="8.489793197061916"><ele>418.0</ele><time>2026-04-27T17:07:13.006Z</time></trkpt><trkpt lat="39.38546250372526" lon="8.48985345988911"><ele>418.0</ele><time>2026-04-27T17:07:14.006Z</time></trkpt><trkpt lat="39.385579895826965" lon="8.489913379440255"><ele>414.75</ele><time>2026-04-27T17:07:15.006Z</time></trkpt><trkpt lat="39.38572744594598" lon="8.489924527742744"><ele>411.5</ele><time>2026-04-27T17:07:16.006Z</time></trkpt><trkpt lat="39.38587562971373" lon="8.489976720410484"><ele>408.25</ele><time>2026-04-27T17:07:17.005Z</time></trkpt><trkpt lat="39.386017559471185" lon="8.490012581820702"><ele>405.0</ele><time>2026-04-27T17:07:18.005Z</time></trkpt><trkpt lat="39.38616511212646" lon="8.490050102176927"><ele>405.0</ele><time>2026-04-27T17:07:19.006Z</time></trkpt><trkpt lat="39.38631330504788" lon="8.490071561457864"><ele>405.0</ele><time>2026-04-27T17:07:20.005Z</time></trkpt><trkpt lat="39.38644528537088" lon="8.490128179252393"><ele>405.0</ele><time>2026-04-27T17:07:21.005Z</time></trkpt><trkpt lat="39.38654592608001" lon="8.490234608996268"><ele>405.0</ele><time>2026-04-27T17:07:22.006Z</time></trkpt><trkpt lat="39.3866171967461" lon="8.490343027393608"><ele>405.8</ele><time>2026-04-27T17:07:23.005Z</time></trkpt><trkpt lat="39.38668537647616" lon="8.490462731171714"><ele>406.6</ele><time>2026-04-27T17:07:24.005Z</time></trkpt><trkpt lat="39.38670024660454" lon="8.490590307787684"><ele>407.4</ele><time>2026-04-27T17:07:25.005Z</time></trkpt><trkpt lat="39.38665841923565" lon="8.490726349968533"><ele>408.2</ele><time>2026-04-27T17:07:26.006Z</time></trkpt><trkpt lat="39.386599553220194" lon="8.490830773879637"><ele>409.0</ele><time>2026-04-27T17:07:27.006Z</time></trkpt><trkpt lat="39.3865216293039" lon="8.490918720745677"><ele>409.0</ele><time>2026-04-27T17:07:28.006Z</time></trkpt><trkpt lat="39.38646627306684" lon="8.491031513338378"><ele>409.0</ele><time>2026-04-27T17:07:29.006Z</time></trkpt><trkpt lat="39.386429834490926" lon="8.491178903130972"><ele>409.0</ele><time>2026-04-27T17:07:30.006Z</time></trkpt><trkpt lat="39.38636888291123" lon="8.491329803303879"><ele>409.0</ele><time>2026-04-27T17:07:31.006Z</time></trkpt><trkpt lat="39.38633161236953" lon="8.491459856693664"><ele>411.1666666666667</ele><time>2026-04-27T17:07:32.006Z</time></trkpt><trkpt lat="39.38627396116299" lon="8.491537522986583"><ele>413.33333333333337</ele><time>2026-04-27T17:07:33.006Z</time></trkpt><trkpt lat="39.3862032893262" lon="8.491554949591624"><ele>415.5</ele><time>2026-04-27T17:07:34.006Z</time></trkpt><trkpt lat="39.38611981508012" lon="8.491526655307737"><ele>417.66666666666663</ele><time>2026-04-27T17:07:35.006Z</time></trkpt><trkpt lat="39.386021833055835" lon="8.491492617900306"><ele>419.8333333333333</ele><time>2026-04-27T17:07:36.006Z</time></trkpt><trkpt lat="39.38591879455508" lon="8.49148768310145"><ele>422.0</ele><time>2026-04-27T17:07:37.006Z</time></trkpt><trkpt lat="39.38581471240167" lon="8.491515933527308"><ele>422.0</ele><time>2026-04-27T17:07:38.006Z</time></trkpt><trkpt lat="39.38572451396112" lon="8.49156892604044"><ele>422.0</ele><time>2026-04-27T17:07:39.006Z</time></trkpt><trkpt lat="39.38565478297876" lon="8.49165798721987"><ele>422.0</ele><time>2026-04-27T17:07:40.006Z</time></trkpt><trkpt lat="39.385605315821216" lon="8.491764337196784"><ele>422.0</ele><time>2026-04-27T17:07:41.006Z</time></trkpt><trkpt lat="39.38556760124258" lon="8.491900628825263"><ele>422.0</ele><time>2026-04-27T17:07:42.006Z</time></trkpt><trkpt lat="39.385522747368064" lon="8.492030111865708"><ele>426.25</ele><time>2026-04-27T17:07:43.006Z</time></trkpt><trkpt lat="39.385465632232965" lon="8.49216928233193"><ele>430.5</ele><time>2026-04-27T17:07:44.006Z</time></trkpt><trkpt lat="39.38538670483249" lon="8.492294794913105"><ele>434.75</ele><time>2026-04-27T17:07:45.006Z</time></trkpt><trkpt lat="39.385277731953494" lon="8.492414069419995"><ele>439.0</ele><time>2026-04-27T17:07:46.006Z</time></trkpt><trkpt lat="39.38518045730689" lon="8.492542997998886"><ele>439.0</ele><time>2026-04-27T17:07:47.006Z</time></trkpt><trkpt lat="39.38510916878983" lon="8.492679979187143"><ele>439.0</ele><time>2026-04-27T17:07:48.006Z</time></trkpt><trkpt lat="39.38503884789473" lon="8.492795161238972"><ele>439.0</ele><time>2026-04-27T17:07:49.006Z</time></trkpt><trkpt lat="39.38494593744719" lon="8.492877106905542"><ele>439.0</ele><time>2026-04-27T17:07:50.006Z</time></trkpt><trkpt lat="39.384829195915884" lon="8.49291937691458"><ele>436.6</ele><time>2026-04-27T17:07:51.006Z</time></trkpt><trkpt lat="39.3847239606437" lon="8.492955759842653"><ele>434.2</ele><time>2026-04-27T17:07:52.006Z</time></trkpt><trkpt lat="39.38465403126816" lon="8.49301811279253"><ele>431.80000000000007</ele><time>2026-04-27T17:07:53.006Z</time></trkpt><trkpt lat="39.38458694881774" lon="8.493104514069213"><ele>429.40000000000003</ele><time>2026-04-27T17:07:54.006Z</time></trkpt><trkpt lat="39.384539862045045" lon="8.493211528915532"><ele>427.0</ele><time>2026-04-27T17:07:55.006Z</time></trkpt><trkpt lat="39.38449993341854" lon="8.49332898774454"><ele>432.0</ele><time>2026-04-27T17:07:56.006Z</time></trkpt><trkpt lat="39.3844467432665" lon="8.493489223843497"><ele>437.0</ele><time>2026-04-27T17:07:57.006Z</time></trkpt><trkpt lat="39.38439613949444" lon="8.493667267874692"><ele>442.0</ele><time>2026-04-27T17:07:58.006Z</time></trkpt><trkpt lat="39.38435418288448" lon="8.493835121089669"><ele>447.0</ele><time>2026-04-27T17:07:59.006Z</time></trkpt><trkpt lat="39.3843217324087" lon="8.49400568381666"><ele>447.0</ele><time>2026-04-27T17:08:00.006Z</time></trkpt><trkpt lat="39.38430992872116" lon="8.494182113362063"><ele>447.0</ele><time>2026-04-27T17:08:01.006Z</time></trkpt><trkpt lat="39.384325012602865" lon="8.4943485450163"><ele>447.0</ele><time>2026-04-27T17:08:02.006Z</time></trkpt><trkpt lat="39.38436225208194" lon="8.494520328214168"><ele>447.0</ele><time>2026-04-27T17:08:03.006Z</time></trkpt><trkpt lat="39.384392828662" lon="8.494669633147963"><ele>446.75</ele><time>2026-04-27T17:08:04.006Z</time></trkpt><trkpt lat="39.38439342295429" lon="8.494816883848484"><ele>446.5</ele><time>2026-04-27T17:08:05.006Z</time></trkpt><trkpt lat="39.38436623513357" lon="8.494963438674603"><ele>446.25</ele><time>2026-04-27T17:08:06.006Z</time></trkpt><trkpt lat="39.384336989133814" lon="8.495109887038545"><ele>446.0</ele><time>2026-04-27T17:08:07.006Z</time></trkpt><trkpt lat="39.384291886570104" lon="8.49525608484783"><ele>446.0</ele><time>2026-04-27T17:08:08.006Z</time></trkpt><trkpt lat="39.384232874750424" lon="8.49537439648679"><ele>446.0</ele><time>2026-04-27T17:08:09.006Z</time></trkpt><trkpt lat="39.384162587869554" lon="8.495462567855487"><ele>446.0</ele><time>2026-04-27T17:08:10.006Z</time></trkpt><trkpt lat="39.38406245119653" lon="8.49551981628756"><ele>446.0</ele><time>2026-04-27T17:08:11.006Z</time></trkpt><trkpt lat="39.383950669261964" lon="8.495534136831257"><ele>446.0</ele><time>2026-04-27T17:08:12.006Z</time></trkpt><trkpt lat="39.383849633156466" lon="8.495501040604246"><ele>445.25</ele><time>2026-04-27T17:08:13.006Z</time></trkpt><trkpt lat="39.383754123921655" lon="8.49542783013949"><ele>444.5</ele><time>2026-04-27T17:08:14.006Z</time></trkpt><trkpt lat="39.38367614007046" lon="8.495327407291352"><ele>443.75</ele><time>2026-04-27T17:08:15.006Z</time></trkpt><trkpt lat="39.38360036640358" lon="8.495198561903749"><ele>443.0</ele><time>2026-04-27T17:08:16.006Z</time></trkpt><trkpt lat="39.38353265657421" lon="8.495055007167029"><ele>443.0</ele><time>2026-04-27T17:08:17.006Z</time></trkpt><trkpt lat="39.383471407487534" lon="8.494885275555827"><ele>443.0</ele><time>2026-04-27T17:08:18.006Z</time></trkpt><trkpt lat="39.38341608370467" lon="8.494700622602796"><ele>443.0</ele><time>2026-04-27T17:08:19.006Z</time></trkpt><trkpt lat="39.38336712776426" lon="8.494511133582488"><ele>445.66666666666663</ele><time>2026-04-27T17:08:20.006Z</time></trkpt><trkpt lat="39.38331513998749" lon="8.49429594434144"><ele>448.33333333333337</ele><time>2026-04-27T17:08:21.006Z</time></trkpt><trkpt lat="39.38325738135016" lon="8.494085106666747"><ele>451.0</ele><time>2026-04-27T17:08:22.006Z</time></trkpt><trkpt lat="39.38319992123492" lon="8.4938742173002"><ele>454.6666666666667</ele><time>2026-04-27T17:08:23.006Z</time></trkpt><trkpt lat="39.38314037037525" lon="8.493656610204928"><ele>458.33333333333337</ele><time>2026-04-27T17:08:24.006Z</time></trkpt><trkpt lat="39.38308117027686" lon="8.493428220695034"><ele>462.0</ele><time>2026-04-27T17:08:25.006Z</time></trkpt><trkpt lat="39.38302253494665" lon="8.493196920063633"><ele>461.33333333333337</ele><time>2026-04-27T17:08:26.006Z</time></trkpt><trkpt lat="39.38296731765437" lon="8.492967804486254"><ele>460.6666666666667</ele><time>2026-04-27T17:08:27.006Z</time></trkpt><trkpt lat="39.38290750018862" lon="8.492738972141533"><ele>460.0</ele><time>2026-04-27T17:08:28.006Z</time></trkpt><trkpt lat="39.38284646564319" lon="8.492499042181823"><ele>460.0</ele><time>2026-04-27T17:08:29.006Z</time></trkpt><trkpt lat="39.382791310357504" lon="8.49227255260661"><ele>460.0</ele><time>2026-04-27T17:08:30.006Z</time></trkpt><trkpt lat="39.38273663805722" lon="8.492071288038666"><ele>460.0</ele><time>2026-04-27T17:08:31.006Z</time></trkpt><trkpt lat="39.3826923675937" lon="8.491883638271979"><ele>462.0</ele><time>2026-04-27T17:08:32.006Z</time></trkpt><trkpt lat="39.38264924315823" lon="8.491718943629808"><ele>464.0</ele><time>2026-04-27T17:08:33.006Z</time></trkpt><trkpt lat="39.38259771536322" lon="8.49158632376054"><ele>466.0</ele><time>2026-04-27T17:08:34.006Z</time></trkpt><trkpt lat="39.38253517612251" lon="8.491486388009772"><ele>468.0</ele><time>2026-04-27T17:08:35.006Z</time></trkpt><trkpt lat="39.38244745155483" lon="8.491426382867617"><ele>470.0</ele><time>2026-04-27T17:08:36.006Z</time></trkpt><trkpt lat="39.38235092571402" lon="8.491409113963053"><ele>470.0</ele><time>2026-04-27T17:08:37.006Z</time></trkpt><trkpt lat="39.3822485173714" lon="8.491418692695929"><ele>470.0</ele><time>2026-04-27T17:08:38.006Z</time></trkpt><trkpt lat="39.38214272708529" lon="8.491462700499943"><ele>470.0</ele><time>2026-04-27T17:08:39.006Z</time></trkpt><trkpt lat="39.38202921962244" lon="8.491521569289215"><ele>470.0</ele><time>2026-04-27T17:08:40.006Z</time></trkpt><trkpt lat="39.38191754165328" lon="8.491570583642607"><ele>472.6</ele><time>2026-04-27T17:08:41.006Z</time></trkpt><trkpt lat="39.38184242179081" lon="8.491615773640863"><ele>475.2</ele><time>2026-04-27T17:08:42.006Z</time></trkpt><trkpt lat="39.381791982310595" lon="8.491687614132612"><ele>477.79999999999995</ele><time>2026-04-27T17:08:43.006Z</time></trkpt><trkpt lat="39.38175448993345" lon="8.491786844968521"><ele>480.4</ele><time>2026-04-27T17:08:44.006Z</time></trkpt><trkpt lat="39.38178227008371" lon="8.491922880733256"><ele>483.0</ele><time>2026-04-27T17:08:45.006Z</time></trkpt><trkpt lat="39.38179708139827" lon="8.492056360825886"><ele>483.25</ele><time>2026-04-27T17:08:46.006Z</time></trkpt><trkpt lat="39.38180934637798" lon="8.492202999625059"><ele>483.5</ele><time>2026-04-27T17:08:47.006Z</time></trkpt><trkpt lat="39.38181100353165" lon="8.492365327704208"><ele>483.75</ele><time>2026-04-27T17:08:48.006Z</time></trkpt><trkpt lat="39.38180501009727" lon="8.492548612475193"><ele>484.0</ele><time>2026-04-27T17:08:49.006Z</time></trkpt><trkpt lat="39.38179712104419" lon="8.492741346376931"><ele>484.0</ele><time>2026-04-27T17:08:50.006Z</time></trkpt><trkpt lat="39.38178857949558" lon="8.492932027322412"><ele>484.0</ele><time>2026-04-27T17:08:51.006Z</time></trkpt><trkpt lat="39.38176889620467" lon="8.493121137971531"><ele>484.0</ele><time>2026-04-27T17:08:52.006Z</time></trkpt><trkpt lat="39.381757784545634" lon="8.493305052840757"><ele>484.0</ele><time>2026-04-27T17:08:53.006Z</time></trkpt><trkpt lat="39.38174569729607" lon="8.493461034366714"><ele>484.0</ele><time>2026-04-27T17:08:54.006Z</time></trkpt><trkpt lat="39.38169487297775" lon="8.493572524491334"><ele>484.0</ele><time>2026-04-27T17:08:55.006Z</time></trkpt><trkpt lat="39.38163165161822" lon="8.493681974970128"><ele>484.0</ele><time>2026-04-27T17:08:56.006Z</time></trkpt><trkpt lat="39.38155135200628" lon="8.493781261005598"><ele>484.0</ele><time>2026-04-27T17:08:57.006Z</time></trkpt><trkpt lat="39.381463730502986" lon="8.493861410597297"><ele>484.0</ele><time>2026-04-27T17:08:58.006Z</time></trkpt><trkpt lat="39.38137325571709" lon="8.493914088295487"><ele>482.79999999999995</ele><time>2026-04-27T17:08:59.006Z</time></trkpt><trkpt lat="39.381283975223425" lon="8.493929906066555"><ele>481.59999999999997</ele><time>2026-04-27T17:09:00.006Z</time></trkpt><trkpt lat="39.381176710869866" lon="8.493910465394995"><ele>480.4</ele><time>2026-04-27T17:09:01.006Z</time></trkpt><trkpt lat="39.38107882955285" lon="8.493858860485002"><ele>479.2</ele><time>2026-04-27T17:09:02.006Z</time></trkpt><trkpt lat="39.380987741748186" lon="8.493794168007094"><ele>478.0</ele><time>2026-04-27T17:09:03.006Z</time></trkpt><trkpt lat="39.380915773437174" lon="8.493685795290508"><ele>481.79999999999995</ele><time>2026-04-27T17:09:04.006Z</time></trkpt><trkpt lat="39.380859263454894" lon="8.49356635632173"><ele>485.59999999999997</ele><time>2026-04-27T17:09:05.006Z</time></trkpt><trkpt lat="39.380789824329426" lon="8.493483755515877"><ele>489.40000000000003</ele><time>2026-04-27T17:09:06.006Z</time></trkpt><trkpt lat="39.3806881169026" lon="8.493439563103987"><ele>493.20000000000005</ele><time>2026-04-27T17:09:07.006Z</time></trkpt><trkpt lat="39.380565637328324" lon="8.493432738651256"><ele>497.0</ele><time>2026-04-27T17:09:08.006Z</time></trkpt><trkpt lat="39.38042773652078" lon="8.493460746416014"><ele>497.75</ele><time>2026-04-27T17:09:09.007Z</time></trkpt><trkpt lat="39.38029569172531" lon="8.49349654266254"><ele>498.5</ele><time>2026-04-27T17:09:10.007Z</time></trkpt><trkpt lat="39.38018474965088" lon="8.493571340828316"><ele>499.25</ele><time>2026-04-27T17:09:11.007Z</time></trkpt><trkpt lat="39.38009717091595" lon="8.49370571948724"><ele>500.0</ele><time>2026-04-27T17:09:12.007Z</time></trkpt><trkpt lat="39.38001355531446" lon="8.493833973589773"><ele>497.6</ele><time>2026-04-27T17:09:13.007Z</time></trkpt><trkpt lat="39.37995129318" lon="8.493967828328959"><ele>495.2</ele><time>2026-04-27T17:09:14.007Z</time></trkpt><trkpt lat="39.379886246084354" lon="8.494065278112371"><ele>492.79999999999995</ele><time>2026-04-27T17:09:15.007Z</time></trkpt><trkpt lat="39.37980596390971" lon="8.494132852165647"><ele>490.4</ele><time>2026-04-27T17:09:16.006Z</time></trkpt><trkpt lat="39.37973654818491" lon="8.494148919539521"><ele>488.0</ele><time>2026-04-27T17:09:17.006Z</time></trkpt><trkpt lat="39.37967629106796" lon="8.494110821526249"><ele>488.0</ele><time>2026-04-27T17:09:18.006Z</time></trkpt><trkpt lat="39.37960194367833" lon="8.49402011545929"><ele>488.0</ele><time>2026-04-27T17:09:19.007Z</time></trkpt><trkpt lat="39.37949346682704" lon="8.493923691322125"><ele>488.0</ele><time>2026-04-27T17:09:20.007Z</time></trkpt><trkpt lat="39.3793838331613" lon="8.493843767704167"><ele>488.0</ele><time>2026-04-27T17:09:21.007Z</time></trkpt><trkpt lat="39.37925522462254" lon="8.49378449392622"><ele>491.75</ele><time>2026-04-27T17:09:22.006Z</time></trkpt><trkpt lat="39.37914372113062" lon="8.493716506786278"><ele>495.5</ele><time>2026-04-27T17:09:23.006Z</time></trkpt><trkpt lat="39.379064503068626" lon="8.493613035904037"><ele>499.25</ele><time>2026-04-27T17:09:24.006Z</time></trkpt><trkpt lat="39.37898882475188" lon="8.493491686765823"><ele>503.0</ele><time>2026-04-27T17:09:25.007Z</time></trkpt><trkpt lat="39.378912456683715" lon="8.493355460457341"><ele>505.66666666666663</ele><time>2026-04-27T17:09:26.006Z</time></trkpt><trkpt lat="39.37882589220682" lon="8.493201957029223"><ele>508.33333333333337</ele><time>2026-04-27T17:09:27.006Z</time></trkpt><trkpt lat="39.37873894929966" lon="8.493035242044797"><ele>511.0</ele><time>2026-04-27T17:09:28.007Z</time></trkpt><trkpt lat="39.378656266619075" lon="8.492867360475165"><ele>511.0</ele><time>2026-04-27T17:09:29.006Z</time></trkpt><trkpt lat="39.37856611913968" lon="8.492705538442424"><ele>511.0</ele><time>2026-04-27T17:09:30.007Z</time></trkpt><trkpt lat="39.37847124871196" lon="8.49254143337081"><ele>511.0</ele><time>2026-04-27T17:09:31.007Z</time></trkpt><trkpt lat="39.378387012947435" lon="8.492371572375882"><ele>511.0</ele><time>2026-04-27T17:09:32.007Z</time></trkpt><trkpt lat="39.37830169761226" lon="8.492222964309253"><ele>511.0</ele><time>2026-04-27T17:09:33.007Z</time></trkpt><trkpt lat="39.37821135099118" lon="8.492097711064115"><ele>511.0</ele><time>2026-04-27T17:09:34.007Z</time></trkpt><trkpt lat="39.378129383000044" lon="8.492013191111052"><ele>511.0</ele><time>2026-04-27T17:09:35.007Z</time></trkpt><trkpt lat="39.3780455457071" lon="8.491972202849832"><ele>517.0</ele><time>2026-04-27T17:09:36.007Z</time></trkpt><trkpt lat="39.37794063648219" lon="8.491970869322687"><ele>523.0</ele><time>2026-04-27T17:09:37.007Z</time></trkpt><trkpt lat="39.37782682860017" lon="8.491994817760208"><ele>529.0</ele><time>2026-04-27T17:09:38.007Z</time></trkpt><trkpt lat="39.377681982079906" lon="8.491996362885708"><ele>535.0</ele><time>2026-04-27T17:09:39.007Z</time></trkpt><trkpt lat="39.37753792397001" lon="8.491977268845643"><ele>535.0</ele><time>2026-04-27T17:09:40.007Z</time></trkpt><trkpt lat="39.377417453803055" lon="8.491976361314084"><ele>535.0</ele><time>2026-04-27T17:09:41.007Z</time></trkpt><trkpt lat="39.377313310298426" lon="8.492025344979867"><ele>535.0</ele><time>2026-04-27T17:09:42.007Z</time></trkpt><trkpt lat="39.37726348469235" lon="8.492119373020394"><ele>535.0</ele><time>2026-04-27T17:09:43.007Z</time></trkpt><trkpt lat="39.37721718149053" lon="8.492207199318749"><ele>535.0</ele><time>2026-04-27T17:09:44.007Z</time></trkpt><trkpt lat="39.37721210925114" lon="8.492318840206922"><ele>530.8</ele><time>2026-04-27T17:09:46.007Z</time></trkpt><trkpt lat="39.37730157474655" lon="8.492368973391866"><ele>526.6</ele><time>2026-04-27T17:09:48.007Z</time></trkpt><trkpt lat="39.377348661266645" lon="8.49242592129507"><ele>522.4</ele><time>2026-04-27T17:11:22.007Z</time></trkpt><trkpt lat="39.377368512305175" lon="8.492543315364493"><ele>518.2</ele><time>2026-04-27T17:11:24.007Z</time></trkpt><trkpt lat="39.37735601429302" lon="8.492671701291826"><ele>514.0</ele><time>2026-04-27T17:11:26.006Z</time></trkpt><trkpt lat="39.37725868682709" lon="8.492781052582622"><ele>513.8</ele><time>2026-04-27T17:11:28.007Z</time></trkpt><trkpt lat="39.37718106476598" lon="8.4928347659713"><ele>513.5999999999999</ele><time>2026-04-27T17:11:29.007Z</time></trkpt><trkpt lat="39.377099280137756" lon="8.492882683626599"><ele>513.4</ele><time>2026-04-27T17:11:30.007Z</time></trkpt><trkpt lat="39.3770116312189" lon="8.492935374058446"><ele>513.1999999999999</ele><time>2026-04-27T17:11:31.006Z</time></trkpt><trkpt lat="39.37692315873986" lon="8.492992491141944"><ele>513.0</ele><time>2026-04-27T17:11:32.006Z</time></trkpt><trkpt lat="39.37683397180807" lon="8.493043444722689"><ele>513.0</ele><time>2026-04-27T17:11:33.007Z</time></trkpt><trkpt lat="39.37674757324062" lon="8.493077028614186"><ele>513.0</ele><time>2026-04-27T17:11:34.007Z</time></trkpt><trkpt lat="39.37666037074977" lon="8.49309183205206"><ele>513.0</ele><time>2026-04-27T17:11:35.007Z</time></trkpt><trkpt lat="39.376579595630616" lon="8.493069332412999"><ele>513.0</ele><time>2026-04-27T17:11:36.007Z</time></trkpt><trkpt lat="39.3765071077911" lon="8.493016127971412"><ele>513.0</ele><time>2026-04-27T17:11:37.007Z</time></trkpt><trkpt lat="39.376438169313275" lon="8.4929427803066"><ele>513.0</ele><time>2026-04-27T17:11:38.007Z</time></trkpt><trkpt lat="39.37636869960023" lon="8.492857472798583"><ele>520.8</ele><time>2026-04-27T17:11:39.007Z</time></trkpt><trkpt lat="39.37627693696724" lon="8.492815294216083"><ele>528.5999999999999</ele><time>2026-04-27T17:11:40.007Z</time></trkpt><trkpt lat="39.376180411293404" lon="8.492773499171067"><ele>536.4000000000001</ele><time>2026-04-27T17:11:41.007Z</time></trkpt><trkpt lat="39.37607386387453" lon="8.492780935650392"><ele>544.2</ele><time>2026-04-27T17:11:42.007Z</time></trkpt><trkpt lat="39.375976083004524" lon="8.492830566121064"><ele>552.0</ele><time>2026-04-27T17:11:43.007Z</time></trkpt><trkpt lat="39.37590219402256" lon="8.492905339713362"><ele>552.0</ele><time>2026-04-27T17:11:44.007Z</time></trkpt><trkpt lat="39.37584326066695" lon="8.493017678834908"><ele>552.0</ele><time>2026-04-27T17:11:45.007Z</time></trkpt><trkpt lat="39.375772160083976" lon="8.493076485833845"><ele>552.0</ele><time>2026-04-27T17:11:46.007Z</time></trkpt><trkpt lat="39.37567475566139" lon="8.493147123206517"><ele>552.0</ele><time>2026-04-27T17:11:47.007Z</time></trkpt><trkpt lat="39.375561492020424" lon="8.493226939495392"><ele>552.0</ele><time>2026-04-27T17:11:48.007Z</time></trkpt><trkpt lat="39.37545035279526" lon="8.493301902471476"><ele>552.0</ele><time>2026-04-27T17:11:49.007Z</time></trkpt><trkpt lat="39.37535370946003" lon="8.493393840397635"><ele>552.0</ele><time>2026-04-27T17:11:50.007Z</time></trkpt><trkpt lat="39.3752775491634" lon="8.493485231912327"><ele>552.0</ele><time>2026-04-27T17:11:51.007Z</time></trkpt><trkpt lat="39.37519582271377" lon="8.49357859983583"><ele>552.0</ele><time>2026-04-27T17:11:52.007Z</time></trkpt><trkpt lat="39.37509807617254" lon="8.493729529365844"><ele>549.5</ele><time>2026-04-27T17:11:53.007Z</time></trkpt><trkpt lat="39.3750916719988" lon="8.493940961595515"><ele>547.0</ele><time>2026-04-27T17:11:54.007Z</time></trkpt><trkpt lat="39.37514348036498" lon="8.49407581642607"><ele>544.5</ele><time>2026-04-27T17:11:55.007Z</time></trkpt><trkpt lat="39.37518827207062" lon="8.49417572105649"><ele>542.0</ele><time>2026-04-27T17:11:56.007Z</time></trkpt><trkpt lat="39.37521978670817" lon="8.494273315978228"><ele>542.0</ele><time>2026-04-27T17:11:57.007Z</time></trkpt><trkpt lat="39.37519363389046" lon="8.494415445839284"><ele>542.0</ele><time>2026-04-27T17:11:59.007Z</time></trkpt><trkpt lat="39.37515214326902" lon="8.494530612744965"><ele>542.0</ele><time>2026-04-27T17:12:00.007Z</time></trkpt><trkpt lat="39.37508677121439" lon="8.494678550674351"><ele>542.0</ele><time>2026-04-27T17:12:01.008Z</time></trkpt><trkpt lat="39.37500755623193" lon="8.494799982503974"><ele>540.0</ele><time>2026-04-27T17:12:02.008Z</time></trkpt><trkpt lat="39.374921525152345" lon="8.494909765012103"><ele>538.0</ele><time>2026-04-27T17:12:03.008Z</time></trkpt><trkpt lat="39.374820302792855" lon="8.494988402697096"><ele>536.0</ele><time>2026-04-27T17:12:04.008Z</time></trkpt><trkpt lat="39.37471488768515" lon="8.495050656648269"><ele>534.0</ele><time>2026-04-27T17:12:05.008Z</time></trkpt><trkpt lat="39.37461822766896" lon="8.495133436312608"><ele>537.4</ele><time>2026-04-27T17:12:06.008Z</time></trkpt><trkpt lat="39.37455475436467" lon="8.49525860451079"><ele>540.8</ele><time>2026-04-27T17:12:07.008Z</time></trkpt><trkpt lat="39.3745378217375" lon="8.495400295657861"><ele>544.2</ele><time>2026-04-27T17:12:08.008Z</time></trkpt><trkpt lat="39.374561754628765" lon="8.495554961948242"><ele>547.6</ele><time>2026-04-27T17:12:09.008Z</time></trkpt><trkpt lat="39.37457244407173" lon="8.495678182772082"><ele>551.0</ele><time>2026-04-27T17:12:10.008Z</time></trkpt><trkpt lat="39.37455992332414" lon="8.495816811295546"><ele>551.0</ele><time>2026-04-27T17:12:11.008Z</time></trkpt><trkpt lat="39.374501444611134" lon="8.49595335019506"><ele>551.0</ele><time>2026-04-27T17:12:12.008Z</time></trkpt><trkpt lat="39.37442404260633" lon="8.496081825903262"><ele>551.0</ele><time>2026-04-27T17:12:13.008Z</time></trkpt><trkpt lat="39.37434476688916" lon="8.49621283832366"><ele>551.0</ele><time>2026-04-27T17:12:14.008Z</time></trkpt><trkpt lat="39.374246544228825" lon="8.49635191346458"><ele>549.3333333333333</ele><time>2026-04-27T17:12:15.008Z</time></trkpt><trkpt lat="39.37414205872686" lon="8.496493634080956"><ele>547.6666666666666</ele><time>2026-04-27T17:12:16.008Z</time></trkpt><trkpt lat="39.37404564510104" lon="8.496651497522661"><ele>546.0</ele><time>2026-04-27T17:12:17.008Z</time></trkpt><trkpt lat="39.3739512727023" lon="8.496798345352147"><ele>546.0</ele><time>2026-04-27T17:12:18.008Z</time></trkpt><trkpt lat="39.37386889490492" lon="8.496939644490208"><ele>546.0</ele><time>2026-04-27T17:12:19.008Z</time></trkpt><trkpt lat="39.3737799497445" lon="8.49706828114527"><ele>546.0</ele><time>2026-04-27T17:12:20.008Z</time></trkpt><trkpt lat="39.37369055840165" lon="8.497186459832614"><ele>546.0</ele><time>2026-04-27T17:12:21.008Z</time></trkpt><trkpt lat="39.37359927493736" lon="8.497322854377346"><ele>545.75</ele><time>2026-04-27T17:12:22.008Z</time></trkpt><trkpt lat="39.373506788038775" lon="8.497461931770834"><ele>545.5</ele><time>2026-04-27T17:12:23.008Z</time></trkpt><trkpt lat="39.37341657182535" lon="8.497593184308146"><ele>545.25</ele><time>2026-04-27T17:12:24.008Z</time></trkpt><trkpt lat="39.37332566604309" lon="8.497728937960991"><ele>545.0</ele><time>2026-04-27T17:12:25.008Z</time></trkpt><trkpt lat="39.373241899685965" lon="8.497865834525207"><ele>543.25</ele><time>2026-04-27T17:12:26.008Z</time></trkpt><trkpt lat="39.373152249422226" lon="8.497999764201351"><ele>541.5</ele><time>2026-04-27T17:12:27.008Z</time></trkpt><trkpt lat="39.3730680547903" lon="8.498117169502683"><ele>539.75</ele><time>2026-04-27T17:12:28.008Z</time></trkpt><trkpt lat="39.37297461264713" lon="8.498228550653042"><ele>538.0</ele><time>2026-04-27T17:12:29.008Z</time></trkpt><trkpt lat="39.37287166447605" lon="8.498319799086637"><ele>538.0</ele><time>2026-04-27T17:12:30.008Z</time></trkpt><trkpt lat="39.3727514185244" lon="8.498388564362076"><ele>538.0</ele><time>2026-04-27T17:12:31.008Z</time></trkpt><trkpt lat="39.37262553835388" lon="8.498424086867946"><ele>538.0</ele><time>2026-04-27T17:12:32.008Z</time></trkpt><trkpt lat="39.37249884952796" lon="8.498430586724506"><ele>538.0</ele><time>2026-04-27T17:12:33.008Z</time></trkpt><trkpt lat="39.37237074785295" lon="8.498426562848909"><ele>538.0</ele><time>2026-04-27T17:12:34.008Z</time></trkpt><trkpt lat="39.37224820021203" lon="8.498440956645073"><ele>538.0</ele><time>2026-04-27T17:12:35.008Z</time></trkpt><trkpt lat="39.37212216287986" lon="8.498496570194904"><ele>538.0</ele><time>2026-04-27T17:12:36.008Z</time></trkpt><trkpt lat="39.372004335693184" lon="8.498567691563743"><ele>538.0</ele><time>2026-04-27T17:12:37.008Z</time></trkpt><trkpt lat="39.37189549435402" lon="8.498616074687169"><ele>537.1666666666667</ele><time>2026-04-27T17:12:38.008Z</time></trkpt><trkpt lat="39.37180730701886" lon="8.49868786266436"><ele>536.3333333333334</ele><time>2026-04-27T17:12:39.008Z</time></trkpt><trkpt lat="39.37174775213287" lon="8.498757276547892"><ele>535.5</ele><time>2026-04-27T17:12:40.008Z</time></trkpt><trkpt lat="39.371698953257265" lon="8.49882221599628"><ele>534.6666666666666</ele><time>2026-04-27T17:12:41.008Z</time></trkpt><trkpt lat="39.371655457511395" lon="8.498884051982204"><ele>533.8333333333333</ele><time>2026-04-27T17:12:42.008Z</time></trkpt><trkpt lat="39.37159700724619" lon="8.498964289609239"><ele>533.0</ele><time>2026-04-27T17:12:44.008Z</time></trkpt><trkpt lat="39.37123692046038" lon="8.499253695210417"><ele>533.0</ele><time>2026-04-27T17:12:45.008Z</time></trkpt><trkpt lat="39.3711401787491" lon="8.499273540163493"><ele>533.0</ele><time>2026-04-27T17:12:46.008Z</time></trkpt><trkpt lat="39.371052784730296" lon="8.499281980987451"><ele>533.0</ele><time>2026-04-27T17:12:47.008Z</time></trkpt><trkpt lat="39.37098377382022" lon="8.49923386039106"><ele>533.0</ele><time>2026-04-27T17:12:48.008Z</time></trkpt><trkpt lat="39.37093666946973" lon="8.499167545344166"><ele>533.0</ele><time>2026-04-27T17:12:49.008Z</time></trkpt><trkpt lat="39.370913247012865" lon="8.499070678576146"><ele>533.0</ele><time>2026-04-27T17:12:50.008Z</time></trkpt><trkpt lat="39.37088719843317" lon="8.4989509202405"><ele>533.0</ele><time>2026-04-27T17:12:51.008Z</time></trkpt><trkpt lat="39.37085097753368" lon="8.498835834301483"><ele>533.0</ele><time>2026-04-27T17:12:52.008Z</time></trkpt><trkpt lat="39.370798539638486" lon="8.498730483052064"><ele>533.0</ele><time>2026-04-27T17:12:53.008Z</time></trkpt><trkpt lat="39.37069204252468" lon="8.498665487973229"><ele>533.0</ele><time>2026-04-27T17:12:54.008Z</time></trkpt><trkpt lat="39.37059841128024" lon="8.498631013568643"><ele>533.0</ele><time>2026-04-27T17:12:55.008Z</time></trkpt><trkpt lat="39.3704939015605" lon="8.498677877029106"><ele>527.8</ele><time>2026-04-27T17:12:56.008Z</time></trkpt><trkpt lat="39.37041417023168" lon="8.49872038842"><ele>522.5999999999999</ele><time>2026-04-27T17:12:57.008Z</time></trkpt><trkpt lat="39.37034882611357" lon="8.498807816686124"><ele>517.4000000000001</ele><time>2026-04-27T17:12:58.008Z</time></trkpt><trkpt lat="39.3703044683023" lon="8.498916218283718"><ele>512.2</ele><time>2026-04-27T17:12:59.008Z</time></trkpt><trkpt lat="39.3702868593198" lon="8.49904956415029"><ele>507.0</ele><time>2026-04-27T17:13:00.008Z</time></trkpt><trkpt lat="39.37029809122383" lon="8.499194479943302"><ele>507.0</ele><time>2026-04-27T17:13:01.008Z</time></trkpt><trkpt lat="39.370330353267754" lon="8.499346066737811"><ele>507.0</ele><time>2026-04-27T17:13:02.008Z</time></trkpt><trkpt lat="39.37035480620378" lon="8.499493402421773"><ele>507.0</ele><time>2026-04-27T17:13:03.008Z</time></trkpt><trkpt lat="39.370351485605816" lon="8.499638728364435"><ele>507.0</ele><time>2026-04-27T17:13:04.008Z</time></trkpt><trkpt lat="39.37028292569865" lon="8.49975620266937"><ele>510.75</ele><time>2026-04-27T17:13:05.008Z</time></trkpt><trkpt lat="39.37021045984563" lon="8.49987238753056"><ele>514.5</ele><time>2026-04-27T17:13:06.008Z</time></trkpt><trkpt lat="39.37011530699401" lon="8.499967235452624"><ele>518.25</ele><time>2026-04-27T17:13:07.008Z</time></trkpt><trkpt lat="39.36998158100371" lon="8.500059014205888"><ele>522.0</ele><time>2026-04-27T17:13:08.008Z</time></trkpt><trkpt lat="39.36987002020887" lon="8.500151302122891"><ele>522.0</ele><time>2026-04-27T17:13:09.008Z</time></trkpt><trkpt lat="39.36975299548296" lon="8.500211891979601"><ele>522.0</ele><time>2026-04-27T17:13:10.008Z</time></trkpt><trkpt lat="39.36964490679205" lon="8.500297079478864"><ele>522.0</ele><time>2026-04-27T17:13:11.008Z</time></trkpt><trkpt lat="39.36956704673579" lon="8.500403812835641"><ele>522.0</ele><time>2026-04-27T17:13:12.008Z</time></trkpt><trkpt lat="39.36953999657446" lon="8.500542198870379"><ele>521.0</ele><time>2026-04-27T17:13:13.008Z</time></trkpt><trkpt lat="39.36951344352624" lon="8.500674871410915"><ele>520.0</ele><time>2026-04-27T17:13:14.008Z</time></trkpt><trkpt lat="39.36949031098806" lon="8.50080627167353"><ele>519.0</ele><time>2026-04-27T17:13:15.008Z</time></trkpt><trkpt lat="39.36944598394017" lon="8.500901844012091"><ele>518.0</ele><time>2026-04-27T17:13:16.008Z</time></trkpt><trkpt lat="39.369408286769875" lon="8.50098452700475"><ele>517.0</ele><time>2026-04-27T17:13:17.008Z</time></trkpt><trkpt lat="39.369322240669774" lon="8.501019033024985"><ele>517.0</ele><time>2026-04-27T17:13:18.008Z</time></trkpt><trkpt lat="39.36923287193942" lon="8.5010124770743"><ele>517.0</ele><time>2026-04-27T17:13:19.008Z</time></trkpt><trkpt lat="39.36913291059695" lon="8.500969613399256"><ele>517.0</ele><time>2026-04-27T17:13:20.008Z</time></trkpt><trkpt lat="39.36902671577968" lon="8.500915945217555"><ele>517.0</ele><time>2026-04-27T17:13:21.008Z</time></trkpt><trkpt lat="39.36889670909818" lon="8.500873068651206"><ele>517.0</ele><time>2026-04-27T17:13:22.008Z</time></trkpt><trkpt lat="39.36874875945593" lon="8.500842382578794"><ele>514.25</ele><time>2026-04-27T17:13:23.008Z</time></trkpt><trkpt lat="39.36861174693758" lon="8.500824044851006"><ele>511.5</ele><time>2026-04-27T17:13:24.008Z</time></trkpt><trkpt lat="39.36847410793783" lon="8.500826255919243"><ele>508.75</ele><time>2026-04-27T17:13:25.008Z</time></trkpt><trkpt lat="39.36834621781665" lon="8.500817729142431"><ele>506.0</ele><time>2026-04-27T17:13:26.007Z</time></trkpt><trkpt lat="39.368233215218375" lon="8.500853314047735"><ele>506.0</ele><time>2026-04-27T17:13:27.008Z</time></trkpt><trkpt lat="39.368126978630954" lon="8.500930570697053"><ele>506.0</ele><time>2026-04-27T17:13:28.008Z</time></trkpt><trkpt lat="39.368050083347406" lon="8.50101998959783"><ele>506.0</ele><time>2026-04-27T17:13:29.008Z</time></trkpt><trkpt lat="39.36799725847467" lon="8.50114221815559"><ele>506.0</ele><time>2026-04-27T17:13:30.008Z</time></trkpt><trkpt lat="39.36798204568635" lon="8.50125813970589"><ele>506.0</ele><time>2026-04-27T17:13:31.008Z</time></trkpt><trkpt lat="39.36801970744906" lon="8.501380034666745"><ele>506.5</ele><time>2026-04-27T17:13:32.007Z</time></trkpt><trkpt lat="39.36809714576451" lon="8.501494057269072"><ele>507.0</ele><time>2026-04-27T17:13:33.008Z</time></trkpt><trkpt lat="39.36817652883495" lon="8.50160038655054"><ele>507.5</ele><time>2026-04-27T17:13:34.008Z</time></trkpt><trkpt lat="39.368267039137166" lon="8.501709691183276"><ele>508.0</ele><time>2026-04-27T17:13:35.008Z</time></trkpt><trkpt lat="39.36836301887148" lon="8.501804966049594"><ele>508.00000000000006</ele><time>2026-04-27T17:13:36.008Z</time></trkpt><trkpt lat="39.36845168202748" lon="8.501904071425361"><ele>508.0</ele><time>2026-04-27T17:13:37.008Z</time></trkpt><trkpt lat="39.3685143090893" lon="8.501987866245422"><ele>508.0</ele><time>2026-04-27T17:13:38.007Z</time></trkpt><trkpt lat="39.36854413578846" lon="8.502067340294325"><ele>508.0</ele><time>2026-04-27T17:13:39.008Z</time></trkpt><trkpt lat="39.368543350138346" lon="8.502151174669482"><ele>508.00000000000006</ele><time>2026-04-27T17:13:40.008Z</time></trkpt><trkpt lat="39.36850030566084" lon="8.502219667887447"><ele>508.0</ele><time>2026-04-27T17:13:41.008Z</time></trkpt><trkpt lat="39.36841982098277" lon="8.502265425935407"><ele>509.25</ele><time>2026-04-27T17:13:42.008Z</time></trkpt><trkpt lat="39.36831670360278" lon="8.502266700768836"><ele>510.5</ele><time>2026-04-27T17:13:43.008Z</time></trkpt><trkpt lat="39.368201152604705" lon="8.502288244466786"><ele>511.75</ele><time>2026-04-27T17:13:44.008Z</time></trkpt><trkpt lat="39.36806815372275" lon="8.502312821030866"><ele>513.0</ele><time>2026-04-27T17:13:45.008Z</time></trkpt><trkpt lat="39.36792300670151" lon="8.50233995046677"><ele>509.33333333333337</ele><time>2026-04-27T17:13:46.008Z</time></trkpt><trkpt lat="39.36776966727087" lon="8.502367031250012"><ele>505.6666666666667</ele><time>2026-04-27T17:13:47.008Z</time></trkpt><trkpt lat="39.36760820094906" lon="8.502400548508689"><ele>502.0</ele><time>2026-04-27T17:13:48.008Z</time></trkpt><trkpt lat="39.36744939222402" lon="8.502427897220574"><ele>502.0</ele><time>2026-04-27T17:13:49.008Z</time></trkpt><trkpt lat="39.36730484399584" lon="8.502460868981574"><ele>502.0</ele><time>2026-04-27T17:13:50.008Z</time></trkpt><trkpt lat="39.36716447899425" lon="8.502474932320277"><ele>502.0</ele><time>2026-04-27T17:13:51.008Z</time></trkpt><trkpt lat="39.367036362479446" lon="8.50245727094809"><ele>502.0</ele><time>2026-04-27T17:13:52.008Z</time></trkpt><trkpt lat="39.36692100612908" lon="8.502391739241084"><ele>501.75</ele><time>2026-04-27T17:13:53.008Z</time></trkpt><trkpt lat="39.36680363470147" lon="8.502303657170774"><ele>501.5</ele><time>2026-04-27T17:13:54.008Z</time></trkpt><trkpt lat="39.36668365987808" lon="8.502214350214379"><ele>501.25</ele><time>2026-04-27T17:13:55.008Z</time></trkpt><trkpt lat="39.36655654219709" lon="8.50215612094814"><ele>501.0</ele><time>2026-04-27T17:13:56.008Z</time></trkpt><trkpt lat="39.366430357378555" lon="8.502127126398289"><ele>499.20000000000005</ele><time>2026-04-27T17:13:57.008Z</time></trkpt><trkpt lat="39.36631244518081" lon="8.502124028882385"><ele>497.40000000000003</ele><time>2026-04-27T17:13:58.008Z</time></trkpt><trkpt lat="39.366204237104306" lon="8.502129567643575"><ele>495.6</ele><time>2026-04-27T17:13:59.008Z</time></trkpt><trkpt lat="39.36610571357165" lon="8.502156562440746"><ele>493.8</ele><time>2026-04-27T17:14:00.008Z</time></trkpt><trkpt lat="39.366003887343155" lon="8.502213616575347"><ele>492.0</ele><time>2026-04-27T17:14:01.008Z</time></trkpt><trkpt lat="39.36592268688794" lon="8.50232071953593"><ele>492.0</ele><time>2026-04-27T17:14:02.008Z</time></trkpt><trkpt lat="39.36583223057969" lon="8.50239370424976"><ele>492.00000000000006</ele><time>2026-04-27T17:14:03.008Z</time></trkpt><trkpt lat="39.36573272993226" lon="8.502438320518921"><ele>492.00000000000006</ele><time>2026-04-27T17:14:04.008Z</time></trkpt><trkpt lat="39.365621708149476" lon="8.502466524299676"><ele>492.0</ele><time>2026-04-27T17:14:05.008Z</time></trkpt><trkpt lat="39.36550104369209" lon="8.502491427937116"><ele>492.0</ele><time>2026-04-27T17:14:06.008Z</time></trkpt><trkpt lat="39.3653800017291" lon="8.502514339813997"><ele>489.25</ele><time>2026-04-27T17:14:07.008Z</time></trkpt><trkpt lat="39.36525201385636" lon="8.5025387967931"><ele>486.5</ele><time>2026-04-27T17:14:08.008Z</time></trkpt><trkpt lat="39.36512845150622" lon="8.502550824890866"><ele>483.75</ele><time>2026-04-27T17:14:09.008Z</time></trkpt><trkpt lat="39.36500387242753" lon="8.502571596451057"><ele>481.0</ele><time>2026-04-27T17:14:10.008Z</time></trkpt><trkpt lat="39.36490394945218" lon="8.502572673827462"><ele>481.00000000000006</ele><time>2026-04-27T17:14:11.008Z</time></trkpt><trkpt lat="39.364816435591045" lon="8.502585772664315"><ele>481.0</ele><time>2026-04-27T17:14:12.008Z</time></trkpt><trkpt lat="39.36473362077347" lon="8.502557171009089"><ele>481.0</ele><time>2026-04-27T17:14:13.008Z</time></trkpt><trkpt lat="39.36466616123295" lon="8.502488301430121"><ele>481.0</ele><time>2026-04-27T17:14:14.008Z</time></trkpt><trkpt lat="39.36462118589631" lon="8.50239541278225"><ele>481.00000000000006</ele><time>2026-04-27T17:14:15.008Z</time></trkpt><trkpt lat="39.364604296108965" lon="8.50228237032391"><ele>481.0</ele><time>2026-04-27T17:14:16.008Z</time></trkpt><trkpt lat="39.36460406472688" lon="8.5021636718144"><ele>481.8</ele><time>2026-04-27T17:14:17.008Z</time></trkpt><trkpt lat="39.36462981426777" lon="8.502029620916659"><ele>482.6</ele><time>2026-04-27T17:14:18.008Z</time></trkpt><trkpt lat="39.364672524502446" lon="8.501893941382724"><ele>483.4</ele><time>2026-04-27T17:14:19.008Z</time></trkpt><trkpt lat="39.364710920708504" lon="8.501756171230799"><ele>484.2</ele><time>2026-04-27T17:14:20.008Z</time></trkpt><trkpt lat="39.36473003739186" lon="8.50161656973749"><ele>485.0</ele><time>2026-04-27T17:14:21.008Z</time></trkpt><trkpt lat="39.36473421020613" lon="8.501477000142456"><ele>481.2</ele><time>2026-04-27T17:14:22.008Z</time></trkpt><trkpt lat="39.36471927771398" lon="8.501342512998544"><ele>477.4</ele><time>2026-04-27T17:14:23.008Z</time></trkpt><trkpt lat="39.36467399726893" lon="8.501220856347773"><ele>473.6</ele><time>2026-04-27T17:14:24.008Z</time></trkpt><trkpt lat="39.36460920430521" lon="8.501108769186144"><ele>469.8</ele><time>2026-04-27T17:14:25.008Z</time></trkpt><trkpt lat="39.36453480494851" lon="8.501005050339984"><ele>466.0</ele><time>2026-04-27T17:14:26.008Z</time></trkpt><trkpt lat="39.36445847547621" lon="8.500921640437678"><ele>466.0</ele><time>2026-04-27T17:14:27.008Z</time></trkpt><trkpt lat="39.364356473282434" lon="8.50087078196124"><ele>466.0</ele><time>2026-04-27T17:14:28.008Z</time></trkpt><trkpt lat="39.36424538874389" lon="8.500838387236504"><ele>466.0</ele><time>2026-04-27T17:14:29.008Z</time></trkpt><trkpt lat="39.36411918096034" lon="8.500813825966011"><ele>466.0</ele><time>2026-04-27T17:14:30.008Z</time></trkpt><trkpt lat="39.36399212449169" lon="8.500768195364438"><ele>465.5</ele><time>2026-04-27T17:14:31.008Z</time></trkpt><trkpt lat="39.3638497843052" lon="8.500738679387489"><ele>465.0</ele><time>2026-04-27T17:14:32.008Z</time></trkpt><trkpt lat="39.36371135096988" lon="8.500726254594277"><ele>464.5</ele><time>2026-04-27T17:14:33.008Z</time></trkpt><trkpt lat="39.363567208246415" lon="8.500743454804072"><ele>464.0</ele><time>2026-04-27T17:14:34.008Z</time></trkpt><trkpt lat="39.36341891317567" lon="8.5007883627947"><ele>464.0</ele><time>2026-04-27T17:14:35.008Z</time></trkpt><trkpt lat="39.36327798907418" lon="8.50083669162556"><ele>464.0</ele><time>2026-04-27T17:14:36.008Z</time></trkpt><trkpt lat="39.363135554722625" lon="8.500894457848661"><ele>464.0</ele><time>2026-04-27T17:14:37.008Z</time></trkpt><trkpt lat="39.36299026609514" lon="8.500942407788026"><ele>464.0</ele><time>2026-04-27T17:14:38.008Z</time></trkpt><trkpt lat="39.362871166580234" lon="8.501030870574903"><ele>462.25</ele><time>2026-04-27T17:14:39.008Z</time></trkpt><trkpt lat="39.362771004917846" lon="8.501125767102726"><ele>460.5</ele><time>2026-04-27T17:14:40.008Z</time></trkpt><trkpt lat="39.362688224399456" lon="8.501237894022848"><ele>458.75</ele><time>2026-04-27T17:14:41.008Z</time></trkpt><trkpt lat="39.36264052219338" lon="8.50138991837291"><ele>457.0</ele><time>2026-04-27T17:14:42.008Z</time></trkpt><trkpt lat="39.36260645550642" lon="8.501533788217788"><ele>457.0</ele><time>2026-04-27T17:14:43.008Z</time></trkpt><trkpt lat="39.36252480713249" lon="8.501628866626307"><ele>457.0</ele><time>2026-04-27T17:14:44.008Z</time></trkpt><trkpt lat="39.36243404908679" lon="8.501715696716767"><ele>457.0</ele><time>2026-04-27T17:14:45.008Z</time></trkpt><trkpt lat="39.362320763963595" lon="8.501776905220527"><ele>457.0</ele><time>2026-04-27T17:14:46.008Z</time></trkpt><trkpt lat="39.362196605642204" lon="8.501811272453761"><ele>453.83333333333337</ele><time>2026-04-27T17:14:47.008Z</time></trkpt><trkpt lat="39.36207373146999" lon="8.501863366264116"><ele>450.6666666666667</ele><time>2026-04-27T17:14:48.008Z</time></trkpt><trkpt lat="39.361977513958145" lon="8.50187335453334"><ele>447.5</ele><time>2026-04-27T17:14:49.008Z</time></trkpt><trkpt lat="39.36191120667012" lon="8.50192941770092"><ele>444.33333333333337</ele><time>2026-04-27T17:14:50.008Z</time></trkpt><trkpt lat="39.36187163844925" lon="8.502010174908515"><ele>441.1666666666667</ele><time>2026-04-27T17:14:51.008Z</time></trkpt><trkpt lat="39.36187304902712" lon="8.502100534693142"><ele>438.0</ele><time>2026-04-27T17:14:52.008Z</time></trkpt><trkpt lat="39.36190591449652" lon="8.502206814101374"><ele>438.0</ele><time>2026-04-27T17:14:53.008Z</time></trkpt><trkpt lat="39.36197941125601" lon="8.502266598516494"><ele>437.99999999999994</ele><time>2026-04-27T17:14:54.008Z</time></trkpt><trkpt lat="39.36205915464331" lon="8.502310165356347"><ele>437.99999999999994</ele><time>2026-04-27T17:14:55.008Z</time></trkpt><trkpt lat="39.36218008767632" lon="8.502344940944136"><ele>438.0</ele><time>2026-04-27T17:14:56.008Z</time></trkpt><trkpt lat="39.36229681306822" lon="8.50238465499262"><ele>438.0</ele><time>2026-04-27T17:14:57.008Z</time></trkpt><trkpt lat="39.36242349927535" lon="8.502434975213017"><ele>441.0</ele><time>2026-04-27T17:14:58.008Z</time></trkpt><trkpt lat="39.36255237551879" lon="8.502483535647062"><ele>443.99999999999994</ele><time>2026-04-27T17:14:59.008Z</time></trkpt><trkpt lat="39.362649344278246" lon="8.502522676531134"><ele>446.99999999999994</ele><time>2026-04-27T17:15:00.008Z</time></trkpt><trkpt lat="39.362737854612234" lon="8.502584924479347"><ele>450.0</ele><time>2026-04-27T17:15:01.008Z</time></trkpt><trkpt lat="39.362798618887645" lon="8.502674959602455"><ele>453.0</ele><time>2026-04-27T17:15:02.008Z</time></trkpt><trkpt lat="39.36283626969271" lon="8.502779676445517"><ele>453.0</ele><time>2026-04-27T17:15:03.008Z</time></trkpt><trkpt lat="39.36282049987497" lon="8.502900132161596"><ele>452.99999999999994</ele><time>2026-04-27T17:15:04.008Z</time></trkpt><trkpt lat="39.362771535504045" lon="8.503014593412942"><ele>452.99999999999994</ele><time>2026-04-27T17:15:05.008Z</time></trkpt><trkpt lat="39.362694370478465" lon="8.503132438108967"><ele>453.0</ele><time>2026-04-27T17:15:06.008Z</time></trkpt><trkpt lat="39.36258539469057" lon="8.503218781291725"><ele>453.0</ele><time>2026-04-27T17:15:07.008Z</time></trkpt><trkpt lat="39.36247616645439" lon="8.503339238608334"><ele>452.33333333333337</ele><time>2026-04-27T17:15:08.008Z</time></trkpt><trkpt lat="39.36235228779561" lon="8.503448154857393"><ele>451.6666666666667</ele><time>2026-04-27T17:15:09.008Z</time></trkpt><trkpt lat="39.36223342470604" lon="8.503564416235399"><ele>451.0</ele><time>2026-04-27T17:15:10.008Z</time></trkpt><trkpt lat="39.36210786745565" lon="8.503697275682718"><ele>446.0</ele><time>2026-04-27T17:15:11.008Z</time></trkpt><trkpt lat="39.361976214390516" lon="8.50384262822462"><ele>441.0</ele><time>2026-04-27T17:15:12.009Z</time></trkpt><trkpt lat="39.361846624669816" lon="8.503983747500579"><ele>436.0</ele><time>2026-04-27T17:15:13.009Z</time></trkpt><trkpt lat="39.361718852186904" lon="8.504136006306423"><ele>436.0</ele><time>2026-04-27T17:15:14.009Z</time></trkpt><trkpt lat="39.36160592290962" lon="8.504278353477112"><ele>436.0</ele><time>2026-04-27T17:15:15.009Z</time></trkpt><trkpt lat="39.3615047537441" lon="8.504413731415973"><ele>436.0</ele><time>2026-04-27T17:15:16.009Z</time></trkpt><trkpt lat="39.36140568422104" lon="8.504535982624379"><ele>436.0</ele><time>2026-04-27T17:15:17.009Z</time></trkpt><trkpt lat="39.36131380260847" lon="8.504648240921762"><ele>432.00000000000006</ele><time>2026-04-27T17:15:18.009Z</time></trkpt><trkpt lat="39.36125089768138" lon="8.50472872390052"><ele>428.0</ele><time>2026-04-27T17:15:19.009Z</time></trkpt><trkpt lat="39.361198696207936" lon="8.504847649918034"><ele>424.0</ele><time>2026-04-27T17:15:20.009Z</time></trkpt><trkpt lat="39.36120589555661" lon="8.504941394352745"><ele>420.0</ele><time>2026-04-27T17:15:21.009Z</time></trkpt><trkpt lat="39.361227314424085" lon="8.505043493402738"><ele>416.00000000000006</ele><time>2026-04-27T17:15:22.009Z</time></trkpt><trkpt lat="39.36127386728315" lon="8.505158566829863"><ele>412.0</ele><time>2026-04-27T17:15:23.009Z</time></trkpt><trkpt lat="39.36132775244785" lon="8.505289529213032"><ele>412.20000000000005</ele><time>2026-04-27T17:15:24.009Z</time></trkpt><trkpt lat="39.36135360741993" lon="8.505419635192062"><ele>412.4</ele><time>2026-04-27T17:15:25.009Z</time></trkpt><trkpt lat="39.36133987925226" lon="8.505537516889264"><ele>412.6</ele><time>2026-04-27T17:15:26.009Z</time></trkpt><trkpt lat="39.36126744020484" lon="8.505631366731967"><ele>412.79999999999995</ele><time>2026-04-27T17:15:27.009Z</time></trkpt><trkpt lat="39.36121613415296" lon="8.505756103527688"><ele>413.0</ele><time>2026-04-27T17:15:28.009Z</time></trkpt><trkpt lat="39.36118245175141" lon="8.50588037154093"><ele>413.0</ele><time>2026-04-27T17:15:29.009Z</time></trkpt><trkpt lat="39.36118215003965" lon="8.506029897316377"><ele>413.0</ele><time>2026-04-27T17:15:30.009Z</time></trkpt><trkpt lat="39.36120252822818" lon="8.506176420058777"><ele>413.0</ele><time>2026-04-27T17:15:31.009Z</time></trkpt><trkpt lat="39.36126625142549" lon="8.506301616334483"><ele>413.0</ele><time>2026-04-27T17:15:32.008Z</time></trkpt><trkpt lat="39.361370926609986" lon="8.506408988002285"><ele>416.0</ele><time>2026-04-27T17:15:33.008Z</time></trkpt><trkpt lat="39.36148058218921" lon="8.506508493171097"><ele>419.0</ele><time>2026-04-27T17:15:34.008Z</time></trkpt><trkpt lat="39.36160400928853" lon="8.506586142018273"><ele>422.0</ele><time>2026-04-27T17:15:35.008Z</time></trkpt><trkpt lat="39.361749264950134" lon="8.506660228380866"><ele>425.0</ele><time>2026-04-27T17:15:36.008Z</time></trkpt><trkpt lat="39.36184371204058" lon="8.506566895480356"><ele>424.99999999999994</ele><time>2026-04-27T17:15:38.008Z</time></trkpt><trkpt lat="39.36192821205914" lon="8.506516883879968"><ele>425.0</ele><time>2026-04-27T17:15:39.008Z</time></trkpt><trkpt lat="39.36201512778209" lon="8.50648910421004"><ele>425.0</ele><time>2026-04-27T17:15:40.008Z</time></trkpt><trkpt lat="39.36209581331317" lon="8.506506323288429"><ele>425.0</ele><time>2026-04-27T17:15:41.007Z</time></trkpt><trkpt lat="39.362143371502526" lon="8.506576889215212"><ele>424.99999999999994</ele><time>2026-04-27T17:15:42.008Z</time></trkpt><trkpt lat="39.36214808727818" lon="8.506689201362963"><ele>425.0</ele><time>2026-04-27T17:15:43.008Z</time></trkpt><trkpt lat="39.36213179303678" lon="8.506809858425438"><ele>425.0</ele><time>2026-04-27T17:15:44.008Z</time></trkpt><trkpt lat="39.36213091073074" lon="8.50694297654932"><ele>425.0</ele><time>2026-04-27T17:15:45.008Z</time></trkpt><trkpt lat="39.36210561631145" lon="8.507055595226372"><ele>425.0</ele><time>2026-04-27T17:15:46.008Z</time></trkpt><trkpt lat="39.36205127763036" lon="8.507147347212605"><ele>425.0</ele><time>2026-04-27T17:15:47.008Z</time></trkpt><trkpt lat="39.361965914227056" lon="8.507220028965211"><ele>425.0</ele><time>2026-04-27T17:15:48.008Z</time></trkpt><trkpt lat="39.36186255543305" lon="8.507269296408197"><ele>425.75</ele><time>2026-04-27T17:15:49.008Z</time></trkpt><trkpt lat="39.36174657538855" lon="8.507328990204348"><ele>426.5</ele><time>2026-04-27T17:15:50.008Z</time></trkpt><trkpt lat="39.36162088046578" lon="8.507384785780706"><ele>427.25</ele><time>2026-04-27T17:15:51.008Z</time></trkpt><trkpt lat="39.361476061083096" lon="8.507399754855484"><ele>428.0</ele><time>2026-04-27T17:15:52.008Z</time></trkpt><trkpt lat="39.36132456224867" lon="8.507387689575328"><ele>428.0</ele><time>2026-04-27T17:15:53.008Z</time></trkpt><trkpt lat="39.36116734546157" lon="8.507389518809866"><ele>428.0</ele><time>2026-04-27T17:15:54.008Z</time></trkpt><trkpt lat="39.36100623653443" lon="8.507362586853327"><ele>428.0</ele><time>2026-04-27T17:15:55.008Z</time></trkpt><trkpt lat="39.360845845461064" lon="8.507299320341321"><ele>428.0</ele><time>2026-04-27T17:15:56.008Z</time></trkpt><trkpt lat="39.36068534027087" lon="8.50725000586352"><ele>428.0</ele><time>2026-04-27T17:15:57.008Z</time></trkpt><trkpt lat="39.360537227848624" lon="8.507175303620036"><ele>428.0</ele><time>2026-04-27T17:15:58.008Z</time></trkpt><trkpt lat="39.36038824669074" lon="8.50712604006469"><ele>425.3333333333333</ele><time>2026-04-27T17:15:59.008Z</time></trkpt><trkpt lat="39.36021643782192" lon="8.50707745467605"><ele>422.66666666666663</ele><time>2026-04-27T17:16:00.008Z</time></trkpt><trkpt lat="39.36007736615373" lon="8.507098106808332"><ele>420.0</ele><time>2026-04-27T17:16:01.008Z</time></trkpt><trkpt lat="39.35993643311261" lon="8.507132143491543"><ele>420.0</ele><time>2026-04-27T17:16:02.008Z</time></trkpt><trkpt lat="39.359819065648054" lon="8.507174829627363"><ele>420.0</ele><time>2026-04-27T17:16:03.008Z</time></trkpt><trkpt lat="39.35971614431795" lon="8.507204549143319"><ele>420.0</ele><time>2026-04-27T17:16:04.008Z</time></trkpt><trkpt lat="39.3596471370556" lon="8.507274656902622"><ele>420.0</ele><time>2026-04-27T17:16:05.008Z</time></trkpt><trkpt lat="39.359614064842496" lon="8.507380848395638"><ele>420.0</ele><time>2026-04-27T17:16:06.008Z</time></trkpt><trkpt lat="39.35958921237441" lon="8.507491777861027"><ele>414.0</ele><time>2026-04-27T17:16:07.008Z</time></trkpt><trkpt lat="39.359547761896366" lon="8.507603399242207"><ele>408.0</ele><time>2026-04-27T17:16:08.008Z</time></trkpt><trkpt lat="39.35946891370763" lon="8.507693749703257"><ele>402.0</ele><time>2026-04-27T17:16:09.008Z</time></trkpt><trkpt lat="39.359360865159566" lon="8.50775461650733"><ele>396.0</ele><time>2026-04-27T17:16:10.008Z</time></trkpt><trkpt lat="39.359245633733174" lon="8.507816088519995"><ele>390.0</ele><time>2026-04-27T17:16:11.008Z</time></trkpt><trkpt lat="39.359132936216994" lon="8.507903973613038"><ele>394.0</ele><time>2026-04-27T17:16:12.008Z</time></trkpt><trkpt lat="39.359032837333224" lon="8.508007669723217"><ele>398.0</ele><time>2026-04-27T17:16:13.008Z</time></trkpt><trkpt lat="39.35895689685679" lon="8.508112209753063"><ele>402.0</ele><time>2026-04-27T17:16:14.008Z</time></trkpt><trkpt lat="39.35889776459747" lon="8.508202886942838"><ele>406.0</ele><time>2026-04-27T17:16:15.008Z</time></trkpt><trkpt lat="39.35890904345112" lon="8.508307292472159"><ele>410.0</ele><time>2026-04-27T17:16:16.008Z</time></trkpt><trkpt lat="39.35893030402836" lon="8.50841440196371"><ele>410.0</ele><time>2026-04-27T17:16:17.008Z</time></trkpt><trkpt lat="39.35896733775201" lon="8.508535505695049"><ele>410.0</ele><time>2026-04-27T17:16:18.008Z</time></trkpt><trkpt lat="39.35899875697847" lon="8.508684270939938"><ele>410.0</ele><time>2026-04-27T17:16:19.008Z</time></trkpt><trkpt lat="39.359043076237896" lon="8.508841273993234"><ele>410.0</ele><time>2026-04-27T17:16:20.008Z</time></trkpt><trkpt lat="39.35907655307713" lon="8.508976014857755"><ele>410.16666666666663</ele><time>2026-04-27T17:16:21.008Z</time></trkpt><trkpt lat="39.359080163867205" lon="8.50908954570592"><ele>410.3333333333333</ele><time>2026-04-27T17:16:22.008Z</time></trkpt><trkpt lat="39.35905140420169" lon="8.509178106228848"><ele>410.5</ele><time>2026-04-27T17:16:23.008Z</time></trkpt><trkpt lat="39.35899524414858" lon="8.509239844034589"><ele>410.66666666666663</ele><time>2026-04-27T17:16:24.008Z</time></trkpt><trkpt lat="39.35890752522827" lon="8.509264719824392"><ele>410.8333333333333</ele><time>2026-04-27T17:16:25.009Z</time></trkpt><trkpt lat="39.358808628048635" lon="8.509235858432909"><ele>411.0</ele><time>2026-04-27T17:16:26.009Z</time></trkpt><trkpt lat="39.35870382811068" lon="8.509166737307707"><ele>407.5</ele><time>2026-04-27T17:16:27.009Z</time></trkpt><trkpt lat="39.358595324529354" lon="8.50908433951127"><ele>404.0</ele><time>2026-04-27T17:16:28.009Z</time></trkpt><trkpt lat="39.35847414073761" lon="8.509018960040748"><ele>400.5</ele><time>2026-04-27T17:16:29.009Z</time></trkpt><trkpt lat="39.35833800764534" lon="8.508965762265527"><ele>397.0</ele><time>2026-04-27T17:16:30.009Z</time></trkpt><trkpt lat="39.35818882311161" lon="8.508944028816547"><ele>397.0</ele><time>2026-04-27T17:16:31.009Z</time></trkpt><trkpt lat="39.35804499399592" lon="8.50892557567417"><ele>397.0</ele><time>2026-04-27T17:16:32.009Z</time></trkpt><trkpt lat="39.35792339836423" lon="8.508915242307268"><ele>397.0</ele><time>2026-04-27T17:16:33.009Z</time></trkpt><trkpt lat="39.357817177460014" lon="8.508942602246114"><ele>397.0</ele><time>2026-04-27T17:16:34.009Z</time></trkpt><trkpt lat="39.357710950388004" lon="8.509009140262213"><ele>395.75</ele><time>2026-04-27T17:16:35.009Z</time></trkpt><trkpt lat="39.3575980259478" lon="8.509105115470076"><ele>394.5</ele><time>2026-04-27T17:16:36.009Z</time></trkpt><trkpt lat="39.35749172151482" lon="8.509212820059652"><ele>393.25</ele><time>2026-04-27T17:16:37.009Z</time></trkpt><trkpt lat="39.35738588866182" lon="8.509275611372468"><ele>392.0</ele><time>2026-04-27T17:16:38.009Z</time></trkpt><trkpt lat="39.35726557623376" lon="8.509274196924096"><ele>392.5</ele><time>2026-04-27T17:16:39.009Z</time></trkpt><trkpt lat="39.35714192554847" lon="8.509209558408964"><ele>393.0</ele><time>2026-04-27T17:16:40.009Z</time></trkpt><trkpt lat="39.35701176464754" lon="8.509170354367662"><ele>393.5</ele><time>2026-04-27T17:16:41.009Z</time></trkpt><trkpt lat="39.35687941432795" lon="8.509099942522072"><ele>394.0</ele><time>2026-04-27T17:16:42.009Z</time></trkpt><trkpt lat="39.35673822831346" lon="8.509075600305284"><ele>394.00000000000006</ele><time>2026-04-27T17:16:43.009Z</time></trkpt><trkpt lat="39.356622820489974" lon="8.509058887923292"><ele>394.0</ele><time>2026-04-27T17:16:44.009Z</time></trkpt><trkpt lat="39.35654566062821" lon="8.509033733598768"><ele>394.0</ele><time>2026-04-27T17:16:45.009Z</time></trkpt><trkpt lat="39.35649526080819" lon="8.50897781189123"><ele>394.0</ele><time>2026-04-27T17:16:46.009Z</time></trkpt><trkpt lat="39.35647697622182" lon="8.508885335120121"><ele>394.00000000000006</ele><time>2026-04-27T17:16:47.009Z</time></trkpt><trkpt lat="39.356501688099556" lon="8.508779355548937"><ele>394.0</ele><time>2026-04-27T17:16:48.009Z</time></trkpt><trkpt lat="39.35655367735506" lon="8.50866030988507"><ele>392.25</ele><time>2026-04-27T17:16:49.009Z</time></trkpt><trkpt lat="39.35662520230114" lon="8.50853570818193"><ele>390.5</ele><time>2026-04-27T17:16:50.009Z</time></trkpt><trkpt lat="39.35673214811821" lon="8.508412180046468"><ele>388.75</ele><time>2026-04-27T17:16:51.009Z</time></trkpt><trkpt lat="39.356848371521046" lon="8.508303120086781"><ele>387.0</ele><time>2026-04-27T17:16:52.009Z</time></trkpt><trkpt lat="39.35697148986894" lon="8.50819292330138"><ele>387.0</ele><time>2026-04-27T17:16:53.009Z</time></trkpt><trkpt lat="39.35707835213422" lon="8.508089235768063"><ele>387.0</ele><time>2026-04-27T17:16:54.009Z</time></trkpt><trkpt lat="39.35714796614095" lon="8.507991260605358"><ele>387.0</ele><time>2026-04-27T17:16:55.009Z</time></trkpt><trkpt lat="39.35719104432104" lon="8.50788450425605"><ele>387.0</ele><time>2026-04-27T17:16:56.009Z</time></trkpt><trkpt lat="39.357189609613705" lon="8.50776835882509"><ele>387.0</ele><time>2026-04-27T17:16:57.009Z</time></trkpt><trkpt lat="39.35716068343553" lon="8.507632317884307"><ele>386.75</ele><time>2026-04-27T17:16:58.009Z</time></trkpt><trkpt lat="39.35710290718891" lon="8.507488862706568"><ele>386.5</ele><time>2026-04-27T17:16:59.009Z</time></trkpt><trkpt lat="39.35703650924111" lon="8.507334677659944"><ele>386.25</ele><time>2026-04-27T17:17:00.009Z</time></trkpt><trkpt lat="39.35696143531657" lon="8.507165705957764"><ele>386.0</ele><time>2026-04-27T17:17:01.009Z</time></trkpt><trkpt lat="39.356881684310736" lon="8.507033373185"><ele>381.0</ele><time>2026-04-27T17:17:02.009Z</time></trkpt><trkpt lat="39.356791468855306" lon="8.506947175542473"><ele>376.0</ele><time>2026-04-27T17:17:03.009Z</time></trkpt><trkpt lat="39.35668154315391" lon="8.506899007769565"><ele>371.0</ele><time>2026-04-27T17:17:04.009Z</time></trkpt><trkpt lat="39.356584400655315" lon="8.506895607366092"><ele>366.0</ele><time>2026-04-27T17:17:05.009Z</time></trkpt><trkpt lat="39.356483918131" lon="8.506926075093228"><ele>361.0</ele><time>2026-04-27T17:17:06.009Z</time></trkpt><trkpt lat="39.3563845631061" lon="8.506911293082823"><ele>364.5</ele><time>2026-04-27T17:17:07.009Z</time></trkpt><trkpt lat="39.35629819410271" lon="8.506859850202927"><ele>368.0</ele><time>2026-04-27T17:17:08.009Z</time></trkpt><trkpt lat="39.356225726759725" lon="8.50676128118542"><ele>371.5</ele><time>2026-04-27T17:17:09.009Z</time></trkpt><trkpt lat="39.35616961593681" lon="8.506618934592707"><ele>375.0</ele><time>2026-04-27T17:17:10.009Z</time></trkpt><trkpt lat="39.35609758349098" lon="8.50647617011808"><ele>375.0</ele><time>2026-04-27T17:17:11.009Z</time></trkpt><trkpt lat="39.356001984296036" lon="8.50635064931921"><ele>375.0</ele><time>2026-04-27T17:17:12.009Z</time></trkpt><trkpt lat="39.35589813282749" lon="8.506250344898358"><ele>375.0</ele><time>2026-04-27T17:17:13.009Z</time></trkpt><trkpt lat="39.35579574813632" lon="8.506176026538771"><ele>375.0</ele><time>2026-04-27T17:17:14.009Z</time></trkpt><trkpt lat="39.355700867489176" lon="8.506104928331188"><ele>372.2</ele><time>2026-04-27T17:17:15.009Z</time></trkpt><trkpt lat="39.35560920832747" lon="8.50610114025797"><ele>369.4</ele><time>2026-04-27T17:17:16.009Z</time></trkpt><trkpt lat="39.355514581499484" lon="8.506155986975052"><ele>366.6</ele><time>2026-04-27T17:17:17.009Z</time></trkpt><trkpt lat="39.35542638226971" lon="8.506259690228488"><ele>363.8</ele><time>2026-04-27T17:17:18.009Z</time></trkpt><trkpt lat="39.35530806461645" lon="8.506337457976223"><ele>361.0</ele><time>2026-04-27T17:17:19.009Z</time></trkpt><trkpt lat="39.35519518135486" lon="8.506437330424998"><ele>361.0</ele><time>2026-04-27T17:17:20.009Z</time></trkpt><trkpt lat="39.35508470824717" lon="8.506562750245804"><ele>361.0</ele><time>2026-04-27T17:17:21.009Z</time></trkpt><trkpt lat="39.35503392764198" lon="8.506721803240334"><ele>361.0</ele><time>2026-04-27T17:17:22.009Z</time></trkpt><trkpt lat="39.3549518228862" lon="8.506824288772197"><ele>361.0</ele><time>2026-04-27T17:17:23.009Z</time></trkpt><trkpt lat="39.35485207638865" lon="8.506843848389618"><ele>361.0</ele><time>2026-04-27T17:17:24.009Z</time></trkpt><trkpt lat="39.35474585176977" lon="8.506840882139652"><ele>361.0</ele><time>2026-04-27T17:17:25.009Z</time></trkpt><trkpt lat="39.35462193830947" lon="8.506830754554503"><ele>361.0</ele><time>2026-04-27T17:17:26.009Z</time></trkpt><trkpt lat="39.35448671637112" lon="8.506836229845655"><ele>361.0</ele><time>2026-04-27T17:17:27.009Z</time></trkpt><trkpt lat="39.35435193295652" lon="8.506824242844433"><ele>357.75</ele><time>2026-04-27T17:17:28.009Z</time></trkpt><trkpt lat="39.35423320928032" lon="8.50681782338544"><ele>354.5</ele><time>2026-04-27T17:17:29.009Z</time></trkpt><trkpt lat="39.35412123903912" lon="8.506813357519095"><ele>351.25</ele><time>2026-04-27T17:17:30.009Z</time></trkpt><trkpt lat="39.354022273454326" lon="8.506885471779137"><ele>348.0</ele><time>2026-04-27T17:17:31.009Z</time></trkpt><trkpt lat="39.353958139912706" lon="8.507016972239548"><ele>350.59999999999997</ele><time>2026-04-27T17:17:32.009Z</time></trkpt><trkpt lat="39.35389544980504" lon="8.507141483135907"><ele>353.2</ele><time>2026-04-27T17:17:33.009Z</time></trkpt><trkpt lat="39.3538284441812" lon="8.507244994973341"><ele>355.8</ele><time>2026-04-27T17:17:34.009Z</time></trkpt><trkpt lat="39.35374439186205" lon="8.507309138265041"><ele>358.4</ele><time>2026-04-27T17:17:35.009Z</time></trkpt><trkpt lat="39.353642926067195" lon="8.507320071812075"><ele>361.0</ele><time>2026-04-27T17:17:36.009Z</time></trkpt><trkpt lat="39.35352964967368" lon="8.507293120759803"><ele>361.0</ele><time>2026-04-27T17:17:37.009Z</time></trkpt><trkpt lat="39.353420021046446" lon="8.50722511198389"><ele>361.0</ele><time>2026-04-27T17:17:38.009Z</time></trkpt><trkpt lat="39.35330975835502" lon="8.507137783280063"><ele>361.0</ele><time>2026-04-27T17:17:39.008Z</time></trkpt><trkpt lat="39.35319609979761" lon="8.507062376961802"><ele>361.0</ele><time>2026-04-27T17:17:40.008Z</time></trkpt><trkpt lat="39.35307474864455" lon="8.507012867682477"><ele>358.0</ele><time>2026-04-27T17:17:41.009Z</time></trkpt><trkpt lat="39.352944614035145" lon="8.506990922307226"><ele>355.0</ele><time>2026-04-27T17:17:42.008Z</time></trkpt><trkpt lat="39.35281048729309" lon="8.50700660839583"><ele>352.0</ele><time>2026-04-27T17:17:43.008Z</time></trkpt><trkpt lat="39.35267086875188" lon="8.5070401049222"><ele>349.0</ele><time>2026-04-27T17:17:44.008Z</time></trkpt><trkpt lat="39.35253836854818" lon="8.507083216616541"><ele>349.0</ele><time>2026-04-27T17:17:45.008Z</time></trkpt><trkpt lat="39.352420646629724" lon="8.50713967613593"><ele>349.0</ele><time>2026-04-27T17:17:46.008Z</time></trkpt><trkpt lat="39.352315298974396" lon="8.507192583058321"><ele>349.0</ele><time>2026-04-27T17:17:47.009Z</time></trkpt><trkpt lat="39.35224632909259" lon="8.50727031452672"><ele>349.0</ele><time>2026-04-27T17:17:48.008Z</time></trkpt><trkpt lat="39.352216808644684" lon="8.507386868004254"><ele>349.0</ele><time>2026-04-27T17:17:49.008Z</time></trkpt><trkpt lat="39.35223634610052" lon="8.50752805315467"><ele>349.0</ele><time>2026-04-27T17:17:50.009Z</time></trkpt><trkpt lat="39.35223392377647" lon="8.50763145211011"><ele>349.0</ele><time>2026-04-27T17:17:51.008Z</time></trkpt><trkpt lat="39.35221835485219" lon="8.507734758008645"><ele>349.0</ele><time>2026-04-27T17:17:52.008Z</time></trkpt><trkpt lat="39.3521512252601" lon="8.507823332744655"><ele>349.0</ele><time>2026-04-27T17:17:53.008Z</time></trkpt><trkpt lat="39.35205019429495" lon="8.507899679187293"><ele>349.0</ele><time>2026-04-27T17:17:54.008Z</time></trkpt><trkpt lat="39.351937826857394" lon="8.507974644347915"><ele>346.25</ele><time>2026-04-27T17:17:55.008Z</time></trkpt><trkpt lat="39.35181648668146" lon="8.508055067460482"><ele>343.5</ele><time>2026-04-27T17:17:56.008Z</time></trkpt><trkpt lat="39.35169239955433" lon="8.508135576129543"><ele>340.75</ele><time>2026-04-27T17:17:57.008Z</time></trkpt><trkpt lat="39.35158846069843" lon="8.508225970418314"><ele>338.0</ele><time>2026-04-27T17:17:58.008Z</time></trkpt><trkpt lat="39.35149881623125" lon="8.508331517137183"><ele>338.0</ele><time>2026-04-27T17:17:59.008Z</time></trkpt><trkpt lat="39.351442982557536" lon="8.508455197574742"><ele>338.0</ele><time>2026-04-27T17:18:00.008Z</time></trkpt><trkpt lat="39.351405500515966" lon="8.508605745939276"><ele>338.0</ele><time>2026-04-27T17:18:01.008Z</time></trkpt><trkpt lat="39.35137376512404" lon="8.50875411747541"><ele>338.0</ele><time>2026-04-27T17:18:02.008Z</time></trkpt><trkpt lat="39.351311117592225" lon="8.508885491300445"><ele>334.25</ele><time>2026-04-27T17:18:03.008Z</time></trkpt><trkpt lat="39.35121483353989" lon="8.508996954535617"><ele>330.5</ele><time>2026-04-27T17:18:04.008Z</time></trkpt><trkpt lat="39.35110472024254" lon="8.509098469868672"><ele>326.75</ele><time>2026-04-27T17:18:05.008Z</time></trkpt><trkpt lat="39.35098838820618" lon="8.50922652324068"><ele>323.0</ele><time>2026-04-27T17:18:06.008Z</time></trkpt><trkpt lat="39.350877611774926" lon="8.509382026289401"><ele>323.0</ele><time>2026-04-27T17:18:07.008Z</time></trkpt><trkpt lat="39.35077812792501" lon="8.509543658947907"><ele>323.0</ele><time>2026-04-27T17:18:08.008Z</time></trkpt><trkpt lat="39.350674771440865" lon="8.509706765248843"><ele>323.0</ele><time>2026-04-27T17:18:09.008Z</time></trkpt><trkpt lat="39.350566092138656" lon="8.509837881018068"><ele>318.5</ele><time>2026-04-27T17:18:10.008Z</time></trkpt><trkpt lat="39.350468867779185" lon="8.509941591133591"><ele>314.0</ele><time>2026-04-27T17:18:11.008Z</time></trkpt><trkpt lat="39.35038102442499" lon="8.51004076141579"><ele>309.5</ele><time>2026-04-27T17:18:12.008Z</time></trkpt><trkpt lat="39.350326470679555" lon="8.51015372375659"><ele>305.0</ele><time>2026-04-27T17:18:13.008Z</time></trkpt><trkpt lat="39.35029558989644" lon="8.510291539307351"><ele>305.25</ele><time>2026-04-27T17:18:14.008Z</time></trkpt><trkpt lat="39.35031924587495" lon="8.510428459340533"><ele>305.5</ele><time>2026-04-27T17:18:15.008Z</time></trkpt><trkpt lat="39.35036305451433" lon="8.510583775412526"><ele>305.75</ele><time>2026-04-27T17:18:16.008Z</time></trkpt><trkpt lat="39.35041643253786" lon="8.510752818522814"><ele>306.0</ele><time>2026-04-27T17:18:17.008Z</time></trkpt><trkpt lat="39.35046856510994" lon="8.51092406911916"><ele>306.0</ele><time>2026-04-27T17:18:18.008Z</time></trkpt><trkpt lat="39.35051155605984" lon="8.511075388893847"><ele>306.0</ele><time>2026-04-27T17:18:19.008Z</time></trkpt><trkpt lat="39.3505186529812" lon="8.51124333829294"><ele>306.0</ele><time>2026-04-27T17:18:20.008Z</time></trkpt><trkpt lat="39.35049575682015" lon="8.511417055969893"><ele>306.0</ele><time>2026-04-27T17:18:21.008Z</time></trkpt><trkpt lat="39.35046341501671" lon="8.51159586502453"><ele>304.5</ele><time>2026-04-27T17:18:22.008Z</time></trkpt><trkpt lat="39.35045585191118" lon="8.511780806844412"><ele>303.0</ele><time>2026-04-27T17:18:23.008Z</time></trkpt><trkpt lat="39.350448171768285" lon="8.511939521480391"><ele>301.5</ele><time>2026-04-27T17:18:24.008Z</time></trkpt><trkpt lat="39.350412490595176" lon="8.512097459834942"><ele>300.0</ele><time>2026-04-27T17:18:25.008Z</time></trkpt><trkpt lat="39.35035905391403" lon="8.512255292420047"><ele>303.0</ele><time>2026-04-27T17:18:26.008Z</time></trkpt><trkpt lat="39.35030939793905" lon="8.512405569666331"><ele>306.0</ele><time>2026-04-27T17:18:27.008Z</time></trkpt><trkpt lat="39.350245790628556" lon="8.512520588563111"><ele>309.0</ele><time>2026-04-27T17:18:28.008Z</time></trkpt><trkpt lat="39.350155200330214" lon="8.512611784735027"><ele>312.0</ele><time>2026-04-27T17:18:29.008Z</time></trkpt><trkpt lat="39.35004523950561" lon="8.512692014569183"><ele>312.0</ele><time>2026-04-27T17:18:30.008Z</time></trkpt><trkpt lat="39.34993614656309" lon="8.512753723234411"><ele>312.0</ele><time>2026-04-27T17:18:31.008Z</time></trkpt><trkpt lat="39.34984165588387" lon="8.512775051106404"><ele>312.0</ele><time>2026-04-27T17:18:32.008Z</time></trkpt><trkpt lat="39.34976372471953" lon="8.512756860587137"><ele>312.0</ele><time>2026-04-27T17:18:33.008Z</time></trkpt><trkpt lat="39.34967008122832" lon="8.512710591963556"><ele>312.0</ele><time>2026-04-27T17:18:34.008Z</time></trkpt><trkpt lat="39.34957999507401" lon="8.51266946596429"><ele>311.4</ele><time>2026-04-27T17:18:35.008Z</time></trkpt><trkpt lat="39.34948929807388" lon="8.512671473860498"><ele>310.79999999999995</ele><time>2026-04-27T17:18:36.008Z</time></trkpt><trkpt lat="39.349410420001306" lon="8.512724095699369"><ele>310.2</ele><time>2026-04-27T17:18:37.008Z</time></trkpt><trkpt lat="39.349327614575685" lon="8.512811438304887"><ele>309.59999999999997</ele><time>2026-04-27T17:18:38.008Z</time></trkpt><trkpt lat="39.349243942566744" lon="8.512919112467966"><ele>309.0</ele><time>2026-04-27T17:18:39.008Z</time></trkpt><trkpt lat="39.349158175567965" lon="8.513044007334145"><ele>309.0</ele><time>2026-04-27T17:18:40.008Z</time></trkpt><trkpt lat="39.3490795903857" lon="8.51317170238531"><ele>309.0</ele><time>2026-04-27T17:18:41.008Z</time></trkpt><trkpt lat="39.34902223820035" lon="8.513310768051209"><ele>309.0</ele><time>2026-04-27T17:18:42.008Z</time></trkpt><trkpt lat="39.34898380135296" lon="8.513463577241097"><ele>309.0</ele><time>2026-04-27T17:18:43.008Z</time></trkpt><trkpt lat="39.34896379488603" lon="8.513624315479415"><ele>308.59999999999997</ele><time>2026-04-27T17:18:44.008Z</time></trkpt><trkpt lat="39.34894296151992" lon="8.51378955099077"><ele>308.2</ele><time>2026-04-27T17:18:45.008Z</time></trkpt><trkpt lat="39.34892150395842" lon="8.513949932577312"><ele>307.79999999999995</ele><time>2026-04-27T17:18:46.008Z</time></trkpt><trkpt lat="39.348914994733974" lon="8.514082232201222"><ele>307.4</ele><time>2026-04-27T17:18:47.008Z</time></trkpt><trkpt lat="39.348915905297446" lon="8.514171119641725"><ele>307.0</ele><time>2026-04-27T17:18:48.008Z</time></trkpt><trkpt lat="39.349015002499755" lon="8.51412626987601"><ele>307.0</ele><time>2026-04-27T17:18:51.008Z</time></trkpt><trkpt lat="39.34905677184465" lon="8.513999728667377"><ele>307.0</ele><time>2026-04-27T17:18:52.008Z</time></trkpt><trkpt lat="39.34932734172622" lon="8.514574738786383"><ele>307.0</ele><time>2026-04-27T17:18:53.008Z</time></trkpt><trkpt lat="39.34945287700806" lon="8.514549986197311"><ele>307.0</ele><time>2026-04-27T17:18:54.008Z</time></trkpt><trkpt lat="39.349583318236284" lon="8.514531843075444"><ele>307.0</ele><time>2026-04-27T17:18:55.008Z</time></trkpt><trkpt lat="39.34971506794092" lon="8.514516789018762"><ele>307.0</ele><time>2026-04-27T17:18:56.008Z</time></trkpt><trkpt lat="39.34984835117361" lon="8.514509209523908"><ele>306.25</ele><time>2026-04-27T17:18:57.008Z</time></trkpt><trkpt lat="39.34997865055457" lon="8.514507208950961"><ele>305.5</ele><time>2026-04-27T17:18:58.008Z</time></trkpt><trkpt lat="39.350094496242924" lon="8.51452128653715"><ele>304.75</ele><time>2026-04-27T17:18:59.008Z</time></trkpt><trkpt lat="39.3501867983699" lon="8.514538776621096"><ele>304.0</ele><time>2026-04-27T17:19:00.008Z</time></trkpt><trkpt lat="39.35027329007482" lon="8.514644285540939"><ele>304.0</ele><time>2026-04-27T17:19:02.008Z</time></trkpt><trkpt lat="39.35028220907261" lon="8.514735256645212"><ele>304.0</ele><time>2026-04-27T17:19:03.008Z</time></trkpt><trkpt lat="39.35024783532779" lon="8.5148375600146"><ele>304.0</ele><time>2026-04-27T17:19:04.008Z</time></trkpt><trkpt lat="39.35018826733232" lon="8.514905341680217"><ele>304.0</ele><time>2026-04-27T17:19:05.008Z</time></trkpt><trkpt lat="39.35009965187927" lon="8.514928765576316"><ele>304.0</ele><time>2026-04-27T17:19:06.008Z</time></trkpt><trkpt lat="39.349996790077455" lon="8.51492083549708"><ele>304.0</ele><time>2026-04-27T17:19:07.008Z</time></trkpt><trkpt lat="39.34988158850563" lon="8.514926625129783"><ele>304.0</ele><time>2026-04-27T17:19:08.008Z</time></trkpt><trkpt lat="39.34975463645328" lon="8.514963050136608"><ele>304.0</ele><time>2026-04-27T17:19:09.008Z</time></trkpt><trkpt lat="39.349616087523835" lon="8.515021198387188"><ele>304.0</ele><time>2026-04-27T17:19:10.008Z</time></trkpt><trkpt lat="39.349472279307754" lon="8.51509059005362"><ele>304.0</ele><time>2026-04-27T17:19:11.008Z</time></trkpt><trkpt lat="39.34932974529629" lon="8.515161943914395"><ele>302.0</ele><time>2026-04-27T17:19:12.008Z</time></trkpt><trkpt lat="39.349190101290326" lon="8.51523518637637"><ele>300.0</ele><time>2026-04-27T17:19:13.009Z</time></trkpt><trkpt lat="39.349049887207684" lon="8.515283607434014"><ele>298.0</ele><time>2026-04-27T17:19:14.009Z</time></trkpt><trkpt lat="39.34889861118364" lon="8.515299658725993"><ele>296.0</ele><time>2026-04-27T17:19:15.009Z</time></trkpt><trkpt lat="39.348678466565765" lon="8.515299193483363"><ele>293.75</ele><time>2026-04-27T17:19:16.009Z</time></trkpt><trkpt lat="39.348529606133184" lon="8.515270258152624"><ele>291.5</ele><time>2026-04-27T17:19:17.009Z</time></trkpt><trkpt lat="39.34837550442145" lon="8.51522045029999"><ele>289.25</ele><time>2026-04-27T17:19:18.009Z</time></trkpt><trkpt lat="39.348252748142755" lon="8.515263604606805"><ele>287.0</ele><time>2026-04-27T17:19:19.009Z</time></trkpt><trkpt lat="39.34811860809313" lon="8.515250936076102"><ele>286.0</ele><time>2026-04-27T17:19:20.009Z</time></trkpt><trkpt lat="39.34797233722088" lon="8.5151681134224"><ele>285.0</ele><time>2026-04-27T17:19:21.009Z</time></trkpt><trkpt lat="39.34782412696942" lon="8.515073197692121"><ele>284.0</ele><time>2026-04-27T17:19:22.009Z</time></trkpt><trkpt lat="39.347679323799824" lon="8.515004691782229"><ele>284.0</ele><time>2026-04-27T17:19:23.009Z</time></trkpt><trkpt lat="39.34753436729819" lon="8.514948313924393"><ele>284.0</ele><time>2026-04-27T17:19:24.009Z</time></trkpt><trkpt lat="39.347405984021954" lon="8.514895345719056"><ele>284.0</ele><time>2026-04-27T17:19:25.009Z</time></trkpt><trkpt lat="39.347286720487205" lon="8.514846133293787"><ele>284.0</ele><time>2026-04-27T17:19:26.009Z</time></trkpt><trkpt lat="39.3472029983143" lon="8.514826196776177"><ele>283.0</ele><time>2026-04-27T17:19:27.009Z</time></trkpt><trkpt lat="39.347086316803455" lon="8.514915656204812"><ele>282.0</ele><time>2026-04-27T17:19:29.009Z</time></trkpt><trkpt lat="39.347030546874535" lon="8.51504230422685"><ele>281.0</ele><time>2026-04-27T17:19:30.009Z</time></trkpt><trkpt lat="39.347003751136555" lon="8.51518709129765"><ele>280.0</ele><time>2026-04-27T17:19:31.009Z</time></trkpt><trkpt lat="39.347023004548234" lon="8.515327258613635"><ele>280.25</ele><time>2026-04-27T17:19:32.009Z</time></trkpt><trkpt lat="39.34708243046208" lon="8.515455563397808"><ele>280.5</ele><time>2026-04-27T17:19:33.009Z</time></trkpt><trkpt lat="39.34716451561288" lon="8.51556300825477"><ele>280.75</ele><time>2026-04-27T17:19:34.009Z</time></trkpt><trkpt lat="39.34726065506291" lon="8.515666522311648"><ele>281.0</ele><time>2026-04-27T17:19:35.009Z</time></trkpt><trkpt lat="39.34733967513425" lon="8.515777297894386"><ele>282.75</ele><time>2026-04-27T17:19:36.009Z</time></trkpt><trkpt lat="39.34738076607327" lon="8.515890574603906"><ele>284.5</ele><time>2026-04-27T17:19:37.009Z</time></trkpt><trkpt lat="39.34740849588621" lon="8.516035132591156"><ele>286.25</ele><time>2026-04-27T17:19:38.009Z</time></trkpt><trkpt lat="39.347399713678094" lon="8.516193684585186"><ele>288.0</ele><time>2026-04-27T17:19:39.009Z</time></trkpt><trkpt lat="39.34736042743943" lon="8.516358815518577"><ele>289.0</ele><time>2026-04-27T17:19:40.009Z</time></trkpt><trkpt lat="39.34731026099792" lon="8.516530978833398"><ele>290.0</ele><time>2026-04-27T17:19:41.009Z</time></trkpt><trkpt lat="39.34726106467622" lon="8.516679618830477"><ele>291.0</ele><time>2026-04-27T17:19:42.009Z</time></trkpt><trkpt lat="39.34719096487723" lon="8.516836251362676"><ele>292.0</ele><time>2026-04-27T17:19:43.009Z</time></trkpt><trkpt lat="39.34710280591848" lon="8.516996757754555"><ele>288.3333333333333</ele><time>2026-04-27T17:19:44.009Z</time></trkpt><trkpt lat="39.34700214610832" lon="8.517160886559388"><ele>284.6666666666667</ele><time>2026-04-27T17:19:45.009Z</time></trkpt><trkpt lat="39.346905896045335" lon="8.517315170694545"><ele>281.0</ele><time>2026-04-27T17:19:46.009Z</time></trkpt><trkpt lat="39.34679328886516" lon="8.517492766162416"><ele>281.0</ele><time>2026-04-27T17:19:47.009Z</time></trkpt><trkpt lat="39.34668580637699" lon="8.517664667845072"><ele>281.0</ele><time>2026-04-27T17:19:48.009Z</time></trkpt><trkpt lat="39.3465841380235" lon="8.517832934630057"><ele>281.0</ele><time>2026-04-27T17:19:49.009Z</time></trkpt><trkpt lat="39.34646733927518" lon="8.517991935946775"><ele>278.33333333333337</ele><time>2026-04-27T17:19:50.009Z</time></trkpt><trkpt lat="39.34635201204089" lon="8.518150460556548"><ele>275.6666666666667</ele><time>2026-04-27T17:19:51.009Z</time></trkpt><trkpt lat="39.34623242204866" lon="8.518292566733077"><ele>273.0</ele><time>2026-04-27T17:19:52.009Z</time></trkpt><trkpt lat="39.34609484784616" lon="8.518434255900281"><ele>273.0</ele><time>2026-04-27T17:19:53.009Z</time></trkpt><trkpt lat="39.34595701935591" lon="8.518568119977957"><ele>273.0</ele><time>2026-04-27T17:19:54.009Z</time></trkpt><trkpt lat="39.345812666373256" lon="8.518705436504538"><ele>273.0</ele><time>2026-04-27T17:19:55.009Z</time></trkpt><trkpt lat="39.34567697995308" lon="8.51883906401459"><ele>273.5</ele><time>2026-04-27T17:19:56.009Z</time></trkpt><trkpt lat="39.34554409940236" lon="8.518968519009212"><ele>274.0</ele><time>2026-04-27T17:19:57.009Z</time></trkpt><trkpt lat="39.34543161109692" lon="8.519079233742016"><ele>274.5</ele><time>2026-04-27T17:19:58.009Z</time></trkpt><trkpt lat="39.345335406245766" lon="8.519199816381274"><ele>275.0</ele><time>2026-04-27T17:19:59.009Z</time></trkpt><trkpt lat="39.34525675590819" lon="8.519345664540209"><ele>275.0</ele><time>2026-04-27T17:20:00.009Z</time></trkpt><trkpt lat="39.34519608610073" lon="8.519509505089273"><ele>275.0</ele><time>2026-04-27T17:20:01.009Z</time></trkpt><trkpt lat="39.34516238409855" lon="8.519685564170308"><ele>275.0</ele><time>2026-04-27T17:20:02.009Z</time></trkpt><trkpt lat="39.34515317590627" lon="8.51987892672385"><ele>275.0</ele><time>2026-04-27T17:20:03.009Z</time></trkpt><trkpt lat="39.34516439999475" lon="8.52008553622133"><ele>273.75</ele><time>2026-04-27T17:20:04.009Z</time></trkpt><trkpt lat="39.34519309898131" lon="8.520281184443126"><ele>272.5</ele><time>2026-04-27T17:20:05.009Z</time></trkpt><trkpt lat="39.345216304413455" lon="8.52047187695656"><ele>271.25</ele><time>2026-04-27T17:20:06.009Z</time></trkpt><trkpt lat="39.34521960367241" lon="8.520623524117628"><ele>270.0</ele><time>2026-04-27T17:20:07.009Z</time></trkpt><trkpt lat="39.345190111803596" lon="8.520768169268102"><ele>270.0</ele><time>2026-04-27T17:20:08.009Z</time></trkpt><trkpt lat="39.34512383769849" lon="8.520890985206462"><ele>270.0</ele><time>2026-04-27T17:20:09.009Z</time></trkpt><trkpt lat="39.34504739028032" lon="8.52101557905815"><ele>270.0</ele><time>2026-04-27T17:20:10.009Z</time></trkpt><trkpt lat="39.34499433569725" lon="8.521135170963264"><ele>270.0</ele><time>2026-04-27T17:20:11.009Z</time></trkpt><trkpt lat="39.34497965233189" lon="8.521245492422855"><ele>270.0</ele><time>2026-04-27T17:20:12.009Z</time></trkpt><trkpt lat="39.34501383830329" lon="8.521372616655766"><ele>269.25</ele><time>2026-04-27T17:20:13.01Z</time></trkpt><trkpt lat="39.34507738723029" lon="8.521497621247034"><ele>268.5</ele><time>2026-04-27T17:20:14.01Z</time></trkpt><trkpt lat="39.34516489762483" lon="8.521617637252108"><ele>267.75</ele><time>2026-04-27T17:20:15.01Z</time></trkpt><trkpt lat="39.34525874954087" lon="8.52174396462616"><ele>267.0</ele><time>2026-04-27T17:20:16.01Z</time></trkpt><trkpt lat="39.34535553508024" lon="8.521883137429732"><ele>267.0</ele><time>2026-04-27T17:20:17.01Z</time></trkpt><trkpt lat="39.34544725776647" lon="8.52202505837631"><ele>267.0</ele><time>2026-04-27T17:20:18.01Z</time></trkpt><trkpt lat="39.34551382835282" lon="8.522167869756336"><ele>267.0</ele><time>2026-04-27T17:20:19.01Z</time></trkpt><trkpt lat="39.34556149277607" lon="8.522310690272446"><ele>267.0</ele><time>2026-04-27T17:20:20.01Z</time></trkpt><trkpt lat="39.3455801722917" lon="8.522459892347053"><ele>266.75</ele><time>2026-04-27T17:20:21.01Z</time></trkpt><trkpt lat="39.34556512993819" lon="8.522602036168694"><ele>266.5</ele><time>2026-04-27T17:20:22.01Z</time></trkpt><trkpt lat="39.345523983089855" lon="8.522748589985323"><ele>266.25</ele><time>2026-04-27T17:20:23.01Z</time></trkpt><trkpt lat="39.34545510789979" lon="8.522878252954527"><ele>266.0</ele><time>2026-04-27T17:20:24.01Z</time></trkpt><trkpt lat="39.34535506663702" lon="8.522998640144975"><ele>267.33333333333337</ele><time>2026-04-27T17:20:25.01Z</time></trkpt><trkpt lat="39.34523686156799" lon="8.523105993210702"><ele>268.6666666666667</ele><time>2026-04-27T17:20:26.01Z</time></trkpt><trkpt lat="39.34509761119213" lon="8.523204457495968"><ele>270.0</ele><time>2026-04-27T17:20:27.01Z</time></trkpt><trkpt lat="39.34495834912041" lon="8.523299055647099"><ele>270.0</ele><time>2026-04-27T17:20:28.01Z</time></trkpt><trkpt lat="39.34481030598847" lon="8.523388500399292"><ele>270.0</ele><time>2026-04-27T17:20:29.01Z</time></trkpt><trkpt lat="39.34464961862599" lon="8.523475181512815"><ele>270.0</ele><time>2026-04-27T17:20:30.01Z</time></trkpt><trkpt lat="39.34448395815413" lon="8.523552582634998"><ele>269.6666666666667</ele><time>2026-04-27T17:20:31.01Z</time></trkpt><trkpt lat="39.3443111002562" lon="8.523617724255725"><ele>269.33333333333337</ele><time>2026-04-27T17:20:32.01Z</time></trkpt><trkpt lat="39.34413229399403" lon="8.523665926643424"><ele>269.0</ele><time>2026-04-27T17:20:33.01Z</time></trkpt><trkpt lat="39.34395156124254" lon="8.523702115327428"><ele>268.33333333333337</ele><time>2026-04-27T17:20:34.01Z</time></trkpt><trkpt lat="39.34377400645446" lon="8.523738207413947"><ele>267.6666666666667</ele><time>2026-04-27T17:20:35.01Z</time></trkpt><trkpt lat="39.343606186912325" lon="8.523789398488994"><ele>267.0</ele><time>2026-04-27T17:20:36.01Z</time></trkpt><trkpt lat="39.34343778249717" lon="8.523849291999255"><ele>267.0</ele><time>2026-04-27T17:20:37.01Z</time></trkpt><trkpt lat="39.34326754167067" lon="8.523942284706692"><ele>267.0</ele><time>2026-04-27T17:20:38.01Z</time></trkpt><trkpt lat="39.34310945900053" lon="8.524050416925748"><ele>267.0</ele><time>2026-04-27T17:20:39.01Z</time></trkpt><trkpt lat="39.34297059949803" lon="8.524157698464041"><ele>267.0</ele><time>2026-04-27T17:20:40.01Z</time></trkpt><trkpt lat="39.34283776707546" lon="8.524240590130159"><ele>267.0</ele><time>2026-04-27T17:20:41.01Z</time></trkpt><trkpt lat="39.34270517977046" lon="8.524295534048942"><ele>267.0</ele><time>2026-04-27T17:20:42.01Z</time></trkpt><trkpt lat="39.34256737795713" lon="8.5242863324703"><ele>267.0</ele><time>2026-04-27T17:20:43.01Z</time></trkpt><trkpt lat="39.342414752099046" lon="8.524251487325962"><ele>267.0</ele><time>2026-04-27T17:20:44.01Z</time></trkpt><trkpt lat="39.34226272090379" lon="8.524203304485642"><ele>267.0</ele><time>2026-04-27T17:20:45.01Z</time></trkpt><trkpt lat="39.342107558671074" lon="8.52416863924734"><ele>267.0</ele><time>2026-04-27T17:20:46.01Z</time></trkpt><trkpt lat="39.34194421197265" lon="8.524139820968268"><ele>266.6666666666667</ele><time>2026-04-27T17:20:47.01Z</time></trkpt><trkpt lat="39.34177887457782" lon="8.524107633813696"><ele>266.33333333333337</ele><time>2026-04-27T17:20:48.01Z</time></trkpt><trkpt lat="39.34160758707345" lon="8.524072428261556"><ele>266.0</ele><time>2026-04-27T17:20:49.01Z</time></trkpt><trkpt lat="39.34143307289936" lon="8.524042625112608"><ele>267.33333333333337</ele><time>2026-04-27T17:20:50.01Z</time></trkpt><trkpt lat="39.341256961565485" lon="8.524009786830481"><ele>268.6666666666667</ele><time>2026-04-27T17:20:51.01Z</time></trkpt><trkpt lat="39.341087177308324" lon="8.523960837696102"><ele>270.0</ele><time>2026-04-27T17:20:52.01Z</time></trkpt><trkpt lat="39.34092067015064" lon="8.52388213471563"><ele>270.0</ele><time>2026-04-27T17:20:53.01Z</time></trkpt><trkpt lat="39.34076624065313" lon="8.523805162934762"><ele>270.0</ele><time>2026-04-27T17:20:54.01Z</time></trkpt><trkpt lat="39.340619152943795" lon="8.52374965575395"><ele>270.0</ele><time>2026-04-27T17:20:55.01Z</time></trkpt><trkpt lat="39.34046944865846" lon="8.523719205229801"><ele>272.0</ele><time>2026-04-27T17:20:56.01Z</time></trkpt><trkpt lat="39.340297102927835" lon="8.52372239584484"><ele>274.0</ele><time>2026-04-27T17:20:57.01Z</time></trkpt><trkpt lat="39.340123723573655" lon="8.523733517869891"><ele>276.0</ele><time>2026-04-27T17:20:58.01Z</time></trkpt><trkpt lat="39.339941445955134" lon="8.523739440581469"><ele>276.0</ele><time>2026-04-27T17:20:59.01Z</time></trkpt><trkpt lat="39.33975446073608" lon="8.523719776962931"><ele>276.0</ele><time>2026-04-27T17:21:00.01Z</time></trkpt><trkpt lat="39.33957850364341" lon="8.523679808535935"><ele>276.0</ele><time>2026-04-27T17:21:01.01Z</time></trkpt><trkpt lat="39.33940974698786" lon="8.523640878227296"><ele>273.5</ele><time>2026-04-27T17:21:02.01Z</time></trkpt><trkpt lat="39.339257074865586" lon="8.52361079240665"><ele>271.0</ele><time>2026-04-27T17:21:03.01Z</time></trkpt><trkpt lat="39.33912460339375" lon="8.52359633771546"><ele>268.5</ele><time>2026-04-27T17:21:04.01Z</time></trkpt><trkpt lat="39.33900286205581" lon="8.52361193591565"><ele>266.0</ele><time>2026-04-27T17:21:05.01Z</time></trkpt><trkpt lat="39.33889443812332" lon="8.523660528554764"><ele>263.75</ele><time>2026-04-27T17:21:06.01Z</time></trkpt><trkpt lat="39.338800190349005" lon="8.523751188421947"><ele>261.5</ele><time>2026-04-27T17:21:07.01Z</time></trkpt><trkpt lat="39.33872998662762" lon="8.523884477851116"><ele>259.25</ele><time>2026-04-27T17:21:08.01Z</time></trkpt><trkpt lat="39.338679278041134" lon="8.524023373935517"><ele>257.0</ele><time>2026-04-27T17:21:09.01Z</time></trkpt><trkpt lat="39.33866633732023" lon="8.524172460159868"><ele>257.0</ele><time>2026-04-27T17:21:10.01Z</time></trkpt><trkpt lat="39.33867468028227" lon="8.524347596258735"><ele>257.0</ele><time>2026-04-27T17:21:11.01Z</time></trkpt><trkpt lat="39.33868749468634" lon="8.524534334438425"><ele>257.0</ele><time>2026-04-27T17:21:12.01Z</time></trkpt><trkpt lat="39.338698051551816" lon="8.524727993512228"><ele>257.0</ele><time>2026-04-27T17:21:13.01Z</time></trkpt><trkpt lat="39.338700083695954" lon="8.524913806951876"><ele>256.75</ele><time>2026-04-27T17:21:14.01Z</time></trkpt><trkpt lat="39.33868354300231" lon="8.525075344283293"><ele>256.5</ele><time>2026-04-27T17:21:15.01Z</time></trkpt><trkpt lat="39.338635908958324" lon="8.525202672684278"><ele>256.25</ele><time>2026-04-27T17:21:16.01Z</time></trkpt><trkpt lat="39.33855458100359" lon="8.525304713156249"><ele>256.0</ele><time>2026-04-27T17:21:17.01Z</time></trkpt><trkpt lat="39.3384488691459" lon="8.52538148791557"><ele>257.0</ele><time>2026-04-27T17:21:18.01Z</time></trkpt><trkpt lat="39.33832844261482" lon="8.525435678927805"><ele>258.0</ele><time>2026-04-27T17:21:19.01Z</time></trkpt><trkpt lat="39.33818740144834" lon="8.525474834193634"><ele>259.0</ele><time>2026-04-27T17:21:20.01Z</time></trkpt><trkpt lat="39.33803564681549" lon="8.52551118996106"><ele>260.0</ele><time>2026-04-27T17:21:21.01Z</time></trkpt><trkpt lat="39.337887115825005" lon="8.525556252382653"><ele>260.0</ele><time>2026-04-27T17:21:22.01Z</time></trkpt><trkpt lat="39.33774080461523" lon="8.525612390370076"><ele>260.0</ele><time>2026-04-27T17:21:23.01Z</time></trkpt><trkpt lat="39.337601999946365" lon="8.525681580509977"><ele>260.0</ele><time>2026-04-27T17:21:24.01Z</time></trkpt><trkpt lat="39.337484605648" lon="8.525767010309607"><ele>260.0</ele><time>2026-04-27T17:21:25.01Z</time></trkpt><trkpt lat="39.337386339908655" lon="8.525898550812672"><ele>260.0</ele><time>2026-04-27T17:21:26.01Z</time></trkpt><trkpt lat="39.33729524056875" lon="8.526053625192342"><ele>260.0</ele><time>2026-04-27T17:21:27.01Z</time></trkpt><trkpt lat="39.33720758258116" lon="8.526212351399288"><ele>260.0</ele><time>2026-04-27T17:21:28.01Z</time></trkpt><trkpt lat="39.33712207328094" lon="8.526377279890772"><ele>259.5</ele><time>2026-04-27T17:21:29.01Z</time></trkpt><trkpt lat="39.33702895488658" lon="8.526534198100093"><ele>259.0</ele><time>2026-04-27T17:21:30.01Z</time></trkpt><trkpt lat="39.336932445348765" lon="8.526662701821222"><ele>258.5</ele><time>2026-04-27T17:21:31.01Z</time></trkpt><trkpt lat="39.33681975452607" lon="8.526768972505481"><ele>258.0</ele><time>2026-04-27T17:21:32.01Z</time></trkpt><trkpt lat="39.33669414237738" lon="8.526853062823077"><ele>258.0</ele><time>2026-04-27T17:21:33.01Z</time></trkpt><trkpt lat="39.33654713665229" lon="8.52690344427619"><ele>258.0</ele><time>2026-04-27T17:21:34.01Z</time></trkpt><trkpt lat="39.33639774134235" lon="8.52695107631666"><ele>258.0</ele><time>2026-04-27T17:21:35.01Z</time></trkpt><trkpt lat="39.3362471733288" lon="8.527005999123386"><ele>256.0</ele><time>2026-04-27T17:21:36.01Z</time></trkpt><trkpt lat="39.336106711726615" lon="8.527053992473354"><ele>254.0</ele><time>2026-04-27T17:21:37.01Z</time></trkpt><trkpt lat="39.33597696142589" lon="8.52708032889601"><ele>252.0</ele><time>2026-04-27T17:21:38.01Z</time></trkpt><trkpt lat="39.33585421453915" lon="8.527082676065527"><ele>250.0</ele><time>2026-04-27T17:21:39.01Z</time></trkpt><trkpt lat="39.335734017335824" lon="8.52704553596142"><ele>250.0</ele><time>2026-04-27T17:21:40.01Z</time></trkpt><trkpt lat="39.335619050517884" lon="8.526964524783446"><ele>250.0</ele><time>2026-04-27T17:21:41.01Z</time></trkpt><trkpt lat="39.335519663330274" lon="8.526853941731956"><ele>250.0</ele><time>2026-04-27T17:21:42.01Z</time></trkpt><trkpt lat="39.33542431624272" lon="8.526719840779613"><ele>250.0</ele><time>2026-04-27T17:21:43.01Z</time></trkpt><trkpt lat="39.335320811851545" lon="8.526581529383652"><ele>251.0</ele><time>2026-04-27T17:21:44.01Z</time></trkpt><trkpt lat="39.33521403600062" lon="8.526449702001015"><ele>252.0</ele><time>2026-04-27T17:21:45.01Z</time></trkpt><trkpt lat="39.33510511724325" lon="8.526337190017944"><ele>253.0</ele><time>2026-04-27T17:21:46.01Z</time></trkpt><trkpt lat="39.33498416099125" lon="8.526248861051188"><ele>254.0</ele><time>2026-04-27T17:21:47.01Z</time></trkpt><trkpt lat="39.33485537724867" lon="8.526181027046038"><ele>254.0</ele><time>2026-04-27T17:21:48.01Z</time></trkpt><trkpt lat="39.334733319988445" lon="8.526151180285547"><ele>254.0</ele><time>2026-04-27T17:21:49.01Z</time></trkpt><trkpt lat="39.33461036100329" lon="8.526152389600934"><ele>254.0</ele><time>2026-04-27T17:21:50.01Z</time></trkpt><trkpt lat="39.33449167304557" lon="8.526193331159051"><ele>254.0</ele><time>2026-04-27T17:21:51.009Z</time></trkpt><trkpt lat="39.3343814636213" lon="8.526268613061314"><ele>254.75</ele><time>2026-04-27T17:21:52.009Z</time></trkpt><trkpt lat="39.33428427607989" lon="8.526376635075561"><ele>255.5</ele><time>2026-04-27T17:21:53.009Z</time></trkpt><trkpt lat="39.33420058339461" lon="8.526508103563254"><ele>256.25</ele><time>2026-04-27T17:21:54.009Z</time></trkpt><trkpt lat="39.334129788694504" lon="8.526658807618288"><ele>257.0</ele><time>2026-04-27T17:21:55.009Z</time></trkpt><trkpt lat="39.33405812426987" lon="8.526829280304709"><ele>257.0</ele><time>2026-04-27T17:21:56.009Z</time></trkpt><trkpt lat="39.33398146177872" lon="8.527019597564829"><ele>257.0</ele><time>2026-04-27T17:21:57.009Z</time></trkpt><trkpt lat="39.333901623925826" lon="8.527213669418375"><ele>257.0</ele><time>2026-04-27T17:21:58.009Z</time></trkpt><trkpt lat="39.33382560465629" lon="8.527406536642946"><ele>255.0</ele><time>2026-04-27T17:21:59.009Z</time></trkpt><trkpt lat="39.33374638075117" lon="8.527604845072466"><ele>253.0</ele><time>2026-04-27T17:22:00.01Z</time></trkpt><trkpt lat="39.333662953108025" lon="8.52780704917981"><ele>251.0</ele><time>2026-04-27T17:22:01.01Z</time></trkpt><trkpt lat="39.33357733237004" lon="8.52801240414722"><ele>251.0</ele><time>2026-04-27T17:22:02.009Z</time></trkpt><trkpt lat="39.33349161541661" lon="8.528221634514818"><ele>251.0</ele><time>2026-04-27T17:22:03.009Z</time></trkpt><trkpt lat="39.33340638599546" lon="8.52843522891348"><ele>251.0</ele><time>2026-04-27T17:22:04.009Z</time></trkpt><trkpt lat="39.33332102901761" lon="8.528645688847645"><ele>249.0</ele><time>2026-04-27T17:22:05.009Z</time></trkpt><trkpt lat="39.333232757415885" lon="8.528856465151032"><ele>247.0</ele><time>2026-04-27T17:22:06.009Z</time></trkpt><trkpt lat="39.33313315079617" lon="8.529064925441952"><ele>245.0</ele><time>2026-04-27T17:22:07.009Z</time></trkpt><trkpt lat="39.33301463323083" lon="8.52926098219088"><ele>249.33333333333334</ele><time>2026-04-27T17:22:08.009Z</time></trkpt><trkpt lat="39.33288803436019" lon="8.529444189883817"><ele>253.66666666666669</ele><time>2026-04-27T17:22:09.009Z</time></trkpt><trkpt lat="39.3327658895745" lon="8.529625426819914"><ele>258.0</ele><time>2026-04-27T17:22:10.009Z</time></trkpt><trkpt lat="39.332665619683546" lon="8.529807566075908"><ele>258.0</ele><time>2026-04-27T17:22:11.009Z</time></trkpt><trkpt lat="39.33257668416431" lon="8.529988256349979"><ele>258.0</ele><time>2026-04-27T17:22:12.009Z</time></trkpt><trkpt lat="39.33249083602944" lon="8.530166802062"><ele>258.0</ele><time>2026-04-27T17:22:13.009Z</time></trkpt><trkpt lat="39.33240075060804" lon="8.530296317880122"><ele>258.0</ele><time>2026-04-27T17:22:14.009Z</time></trkpt><trkpt lat="39.33230930045929" lon="8.530401039931116"><ele>258.0</ele><time>2026-04-27T17:22:15.009Z</time></trkpt><trkpt lat="39.332204610336056" lon="8.530488820707426"><ele>258.0</ele><time>2026-04-27T17:22:16.009Z</time></trkpt><trkpt lat="39.33208580440608" lon="8.530541134421304"><ele>258.0</ele><time>2026-04-27T17:22:17.009Z</time></trkpt><trkpt lat="39.33196153268282" lon="8.530554193962189"><ele>258.0</ele><time>2026-04-27T17:22:18.009Z</time></trkpt><trkpt lat="39.33183841922152" lon="8.530563045015562"><ele>258.0</ele><time>2026-04-27T17:22:19.009Z</time></trkpt><trkpt lat="39.33172602374425" lon="8.530590041119654"><ele>258.0</ele><time>2026-04-27T17:22:20.009Z</time></trkpt><trkpt lat="39.33161474607055" lon="8.530661742280476"><ele>258.0</ele><time>2026-04-27T17:22:21.009Z</time></trkpt><trkpt lat="39.33149648342971" lon="8.53076748356249"><ele>268.3333333333333</ele><time>2026-04-27T17:22:22.009Z</time></trkpt><trkpt lat="39.33137926333606" lon="8.53089004934507"><ele>278.66666666666663</ele><time>2026-04-27T17:22:23.009Z</time></trkpt><trkpt lat="39.33126357965663" lon="8.531015440378948"><ele>289.0</ele><time>2026-04-27T17:22:24.009Z</time></trkpt><trkpt lat="39.331157781417495" lon="8.531156255593574"><ele>281.75</ele><time>2026-04-27T17:22:25.009Z</time></trkpt><trkpt lat="39.331055069695964" lon="8.531293242147017"><ele>274.5</ele><time>2026-04-27T17:22:26.009Z</time></trkpt><trkpt lat="39.330948213228886" lon="8.531386537568395"><ele>267.25</ele><time>2026-04-27T17:22:27.009Z</time></trkpt><trkpt lat="39.33082183570756" lon="8.531448597415473"><ele>260.0</ele><time>2026-04-27T17:22:28.009Z</time></trkpt><trkpt lat="39.33068115985193" lon="8.53148900443295"><ele>263.75</ele><time>2026-04-27T17:22:29.009Z</time></trkpt><trkpt lat="39.3305414965099" lon="8.531522406833437"><ele>267.5</ele><time>2026-04-27T17:22:30.009Z</time></trkpt><trkpt lat="39.330394302411406" lon="8.531551072798415"><ele>271.25</ele><time>2026-04-27T17:22:31.009Z</time></trkpt><trkpt lat="39.330239031684776" lon="8.531587186352661"><ele>275.0</ele><time>2026-04-27T17:22:32.009Z</time></trkpt><trkpt lat="39.33007581623636" lon="8.53162230727425"><ele>275.0</ele><time>2026-04-27T17:22:33.009Z</time></trkpt><trkpt lat="39.329914246325764" lon="8.531654155734973"><ele>275.0</ele><time>2026-04-27T17:22:34.009Z</time></trkpt><trkpt lat="39.32974442295289" lon="8.531697165083592"><ele>275.0</ele><time>2026-04-27T17:22:35.009Z</time></trkpt><trkpt lat="39.32957346921212" lon="8.531736693759878"><ele>278.0</ele><time>2026-04-27T17:22:36.009Z</time></trkpt><trkpt lat="39.3294006681587" lon="8.53177018951056"><ele>281.0</ele><time>2026-04-27T17:22:37.009Z</time></trkpt><trkpt lat="39.329227821860165" lon="8.531782433331497"><ele>284.0</ele><time>2026-04-27T17:22:38.009Z</time></trkpt><trkpt lat="39.32906842952143" lon="8.531771315042095"><ele>284.0</ele><time>2026-04-27T17:22:39.009Z</time></trkpt><trkpt lat="39.32892061090909" lon="8.53176650955837"><ele>284.0</ele><time>2026-04-27T17:22:40.009Z</time></trkpt><trkpt lat="39.328783366155974" lon="8.531801390315463"><ele>284.0</ele><time>2026-04-27T17:22:41.009Z</time></trkpt><trkpt lat="39.32864096777309" lon="8.531872545001358"><ele>284.0</ele><time>2026-04-27T17:22:42.009Z</time></trkpt><trkpt lat="39.328498381670364" lon="8.531938020958975"><ele>284.33333333333337</ele><time>2026-04-27T17:22:43.009Z</time></trkpt><trkpt lat="39.32835018203625" lon="8.531968620887541"><ele>284.6666666666667</ele><time>2026-04-27T17:22:44.009Z</time></trkpt><trkpt lat="39.32819651428158" lon="8.531963954956993"><ele>285.0</ele><time>2026-04-27T17:22:45.009Z</time></trkpt><trkpt lat="39.32804310309323" lon="8.531937158921737"><ele>285.0</ele><time>2026-04-27T17:22:46.01Z</time></trkpt><trkpt lat="39.327890623343194" lon="8.531896609299354"><ele>285.0</ele><time>2026-04-27T17:22:47.01Z</time></trkpt><trkpt lat="39.327727743186294" lon="8.531863843274516"><ele>285.0</ele><time>2026-04-27T17:22:48.01Z</time></trkpt><trkpt lat="39.327573982649966" lon="8.531837958456745"><ele>285.0</ele><time>2026-04-27T17:22:49.01Z</time></trkpt><trkpt lat="39.3274239736887" lon="8.531820206945179"><ele>285.0</ele><time>2026-04-27T17:22:50.01Z</time></trkpt><trkpt lat="39.32729032662886" lon="8.531827344212855"><ele>285.0</ele><time>2026-04-27T17:22:51.01Z</time></trkpt><trkpt lat="39.32715012694132" lon="8.531864617598039"><ele>285.0</ele><time>2026-04-27T17:22:52.01Z</time></trkpt><trkpt lat="39.32699962556953" lon="8.531939116488509"><ele>285.0</ele><time>2026-04-27T17:22:53.01Z</time></trkpt><trkpt lat="39.32683722877144" lon="8.532032911168923"><ele>285.0</ele><time>2026-04-27T17:22:54.01Z</time></trkpt><trkpt lat="39.326680332656025" lon="8.532143889567054"><ele>285.0</ele><time>2026-04-27T17:22:55.01Z</time></trkpt><trkpt lat="39.32650907605892" lon="8.532230517785402"><ele>279.6666666666667</ele><time>2026-04-27T17:22:56.01Z</time></trkpt><trkpt lat="39.32635772813771" lon="8.532349653184491"><ele>274.33333333333337</ele><time>2026-04-27T17:22:57.01Z</time></trkpt><trkpt lat="39.326202984948246" lon="8.532427887039862"><ele>269.0</ele><time>2026-04-27T17:22:58.01Z</time></trkpt><trkpt lat="39.326053414357325" lon="8.532511105113189"><ele>269.0</ele><time>2026-04-27T17:22:59.01Z</time></trkpt><trkpt lat="39.32589469166805" lon="8.532581329264682"><ele>269.0</ele><time>2026-04-27T17:23:00.01Z</time></trkpt><trkpt lat="39.32571852952054" lon="8.532635825540625"><ele>269.0</ele><time>2026-04-27T17:23:01.01Z</time></trkpt><trkpt lat="39.32553265652726" lon="8.532671177300564"><ele>266.6666666666667</ele><time>2026-04-27T17:23:02.01Z</time></trkpt><trkpt lat="39.325357583862015" lon="8.532732898858866"><ele>264.3333333333333</ele><time>2026-04-27T17:23:03.01Z</time></trkpt><trkpt lat="39.32517320283749" lon="8.532835708582773"><ele>262.0</ele><time>2026-04-27T17:23:04.01Z</time></trkpt><trkpt lat="39.325024340539144" lon="8.532933742706994"><ele>262.0</ele><time>2026-04-27T17:23:05.01Z</time></trkpt><trkpt lat="39.324887407217275" lon="8.533032803163362"><ele>262.0</ele><time>2026-04-27T17:23:06.01Z</time></trkpt><trkpt lat="39.32479086199488" lon="8.533135637454537"><ele>262.0</ele><time>2026-04-27T17:23:07.01Z</time></trkpt><trkpt lat="39.32475630482796" lon="8.533210044808909"><ele>262.0</ele><time>2026-04-27T17:23:08.01Z</time></trkpt><trkpt lat="39.32471926121314" lon="8.533278050952827"><ele>262.0</ele><time>2026-04-27T17:23:09.01Z</time></trkpt><trkpt lat="39.32469258179396" lon="8.533396539640252"><ele>260.6</ele><time>2026-04-27T17:23:10.01Z</time></trkpt><trkpt lat="39.3246912356671" lon="8.533522789914935"><ele>259.2</ele><time>2026-04-27T17:23:11.01Z</time></trkpt><trkpt lat="39.32472028461445" lon="8.533636273410277"><ele>257.8</ele><time>2026-04-27T17:23:12.01Z</time></trkpt><trkpt lat="39.32477981575303" lon="8.533725559504411"><ele>256.4</ele><time>2026-04-27T17:23:13.01Z</time></trkpt><trkpt lat="39.324866760031064" lon="8.533789507515067"><ele>255.0</ele><time>2026-04-27T17:23:14.01Z</time></trkpt><trkpt lat="39.32496423634017" lon="8.533847780495886"><ele>255.0</ele><time>2026-04-27T17:23:15.01Z</time></trkpt><trkpt lat="39.32504557178426" lon="8.533916760689282"><ele>255.0</ele><time>2026-04-27T17:23:16.01Z</time></trkpt><trkpt lat="39.32511845527833" lon="8.534041126171083"><ele>255.0</ele><time>2026-04-27T17:23:17.01Z</time></trkpt><trkpt lat="39.32515402222081" lon="8.53418817121147"><ele>255.0</ele><time>2026-04-27T17:23:18.01Z</time></trkpt><trkpt lat="39.32509017189026" lon="8.534338273670635"><ele>255.0</ele><time>2026-04-27T17:23:19.01Z</time></trkpt><trkpt lat="39.32499436501932" lon="8.534344025244383"><ele>255.0</ele><time>2026-04-27T17:23:20.01Z</time></trkpt><trkpt lat="39.32491629616972" lon="8.534422175388205"><ele>255.0</ele><time>2026-04-27T17:23:21.01Z</time></trkpt><trkpt lat="39.32481469507987" lon="8.534532567478731"><ele>255.0</ele><time>2026-04-27T17:23:22.01Z</time></trkpt><trkpt lat="39.32470391195598" lon="8.534658525776516"><ele>255.0</ele><time>2026-04-27T17:23:23.01Z</time></trkpt><trkpt lat="39.32460382651798" lon="8.534776269985157"><ele>255.0</ele><time>2026-04-27T17:23:24.01Z</time></trkpt><trkpt lat="39.324503845231995" lon="8.5348787046633"><ele>255.0</ele><time>2026-04-27T17:23:25.01Z</time></trkpt><trkpt lat="39.32442076805545" lon="8.534944929022787"><ele>255.0</ele><time>2026-04-27T17:23:26.01Z</time></trkpt><trkpt lat="39.324346874142364" lon="8.534872785777566"><ele>255.0</ele><time>2026-04-27T17:23:28.01Z</time></trkpt><trkpt lat="39.32426834393359" lon="8.534713278227802"><ele>255.0</ele><time>2026-04-27T17:23:30.01Z</time></trkpt><trkpt lat="39.3241803048884" lon="8.534578723863588"><ele>255.0</ele><time>2026-04-27T17:23:31.01Z</time></trkpt><trkpt lat="39.32409193599197" lon="8.534438464217704"><ele>255.0</ele><time>2026-04-27T17:23:32.01Z</time></trkpt><trkpt lat="39.32399793389721" lon="8.534285129204845"><ele>254.5</ele><time>2026-04-27T17:23:33.01Z</time></trkpt><trkpt lat="39.32389901270726" lon="8.534129078641346"><ele>254.0</ele><time>2026-04-27T17:23:34.01Z</time></trkpt><trkpt lat="39.32380597910547" lon="8.533989612392281"><ele>253.5</ele><time>2026-04-27T17:23:35.01Z</time></trkpt><trkpt lat="39.32370478739981" lon="8.533869217211809"><ele>253.0</ele><time>2026-04-27T17:23:36.01Z</time></trkpt><trkpt lat="39.32361481379969" lon="8.533733802480254"><ele>248.5</ele><time>2026-04-27T17:23:37.01Z</time></trkpt><trkpt lat="39.32351331393126" lon="8.533629853023928"><ele>244.0</ele><time>2026-04-27T17:23:38.01Z</time></trkpt><trkpt lat="39.32339617233273" lon="8.533534237093988"><ele>239.5</ele><time>2026-04-27T17:23:39.01Z</time></trkpt><trkpt lat="39.32326826738819" lon="8.53346493820685"><ele>235.0</ele><time>2026-04-27T17:23:40.01Z</time></trkpt><trkpt lat="39.32314089117993" lon="8.533389660781754"><ele>233.66666666666666</ele><time>2026-04-27T17:23:41.01Z</time></trkpt><trkpt lat="39.32301692584313" lon="8.533295434351386"><ele>232.33333333333331</ele><time>2026-04-27T17:23:42.01Z</time></trkpt><trkpt lat="39.32287432349317" lon="8.53322320377427"><ele>231.0</ele><time>2026-04-27T17:23:43.01Z</time></trkpt><trkpt lat="39.32272861981417" lon="8.53315192126239"><ele>231.0</ele><time>2026-04-27T17:23:44.01Z</time></trkpt><trkpt lat="39.32257411323526" lon="8.53308060169874"><ele>231.0</ele><time>2026-04-27T17:23:45.01Z</time></trkpt><trkpt lat="39.322429122331414" lon="8.533018141857156"><ele>231.0</ele><time>2026-04-27T17:23:46.01Z</time></trkpt><trkpt lat="39.322277692649564" lon="8.532974989509743"><ele>229.66666666666669</ele><time>2026-04-27T17:23:47.01Z</time></trkpt><trkpt lat="39.322115675737564" lon="8.532941774462405"><ele>228.33333333333334</ele><time>2026-04-27T17:23:48.01Z</time></trkpt><trkpt lat="39.32194740424783" lon="8.532917157127306"><ele>227.0</ele><time>2026-04-27T17:23:49.01Z</time></trkpt><trkpt lat="39.32177492518963" lon="8.532912329192374"><ele>227.0</ele><time>2026-04-27T17:23:50.01Z</time></trkpt><trkpt lat="39.32159505338048" lon="8.532894072779714"><ele>227.0</ele><time>2026-04-27T17:23:51.01Z</time></trkpt><trkpt lat="39.32142586641179" lon="8.532873496409234"><ele>227.0</ele><time>2026-04-27T17:23:52.01Z</time></trkpt><trkpt lat="39.32125177110105" lon="8.532846092459183"><ele>228.33333333333334</ele><time>2026-04-27T17:23:53.01Z</time></trkpt><trkpt lat="39.321071092050396" lon="8.532823498293643"><ele>229.66666666666669</ele><time>2026-04-27T17:23:54.01Z</time></trkpt><trkpt lat="39.320888231506615" lon="8.532819767177374"><ele>231.0</ele><time>2026-04-27T17:23:55.01Z</time></trkpt><trkpt lat="39.32072122586632" lon="8.532800658474008"><ele>226.33333333333331</ele><time>2026-04-27T17:23:56.01Z</time></trkpt><trkpt lat="39.32055778851201" lon="8.532792178402913"><ele>221.66666666666666</ele><time>2026-04-27T17:23:57.009Z</time></trkpt><trkpt lat="39.320400764873305" lon="8.532772692017213"><ele>217.0</ele><time>2026-04-27T17:23:58.009Z</time></trkpt><trkpt lat="39.32025601125298" lon="8.532761870704508"><ele>217.0</ele><time>2026-04-27T17:23:59.01Z</time></trkpt><trkpt lat="39.320127569694336" lon="8.532757007650043"><ele>217.0</ele><time>2026-04-27T17:24:00.01Z</time></trkpt><trkpt lat="39.319988126016234" lon="8.532769687454046"><ele>217.0</ele><time>2026-04-27T17:24:01.01Z</time></trkpt><trkpt lat="39.31984487398238" lon="8.532758164363345"><ele>217.0</ele><time>2026-04-27T17:24:02.009Z</time></trkpt><trkpt lat="39.31969714341443" lon="8.532777505690007"><ele>216.75</ele><time>2026-04-27T17:24:03.01Z</time></trkpt><trkpt lat="39.3195615074052" lon="8.532825453925671"><ele>216.5</ele><time>2026-04-27T17:24:04.01Z</time></trkpt><trkpt lat="39.3194292876189" lon="8.532858050850454"><ele>216.25</ele><time>2026-04-27T17:24:05.01Z</time></trkpt><trkpt lat="39.31929113853775" lon="8.532877371802112"><ele>216.0</ele><time>2026-04-27T17:24:06.01Z</time></trkpt><trkpt lat="39.319157253694534" lon="8.53293772613929"><ele>216.0</ele><time>2026-04-27T17:24:07.01Z</time></trkpt><trkpt lat="39.31902691587921" lon="8.533000623073438"><ele>216.0</ele><time>2026-04-27T17:24:08.01Z</time></trkpt><trkpt lat="39.318897925577716" lon="8.533081269067845"><ele>216.0</ele><time>2026-04-27T17:24:09.01Z</time></trkpt><trkpt lat="39.31876326747833" lon="8.533123934399933"><ele>216.0</ele><time>2026-04-27T17:24:10.01Z</time></trkpt><trkpt lat="39.31863257410424" lon="8.53318802851516"><ele>213.25</ele><time>2026-04-27T17:24:11.01Z</time></trkpt><trkpt lat="39.318493625301244" lon="8.533261782756645"><ele>210.5</ele><time>2026-04-27T17:24:12.01Z</time></trkpt><trkpt lat="39.3183549437214" lon="8.533334072026744"><ele>207.75</ele><time>2026-04-27T17:24:13.01Z</time></trkpt><trkpt lat="39.31821985622769" lon="8.533410746443957"><ele>205.0</ele><time>2026-04-27T17:24:14.01Z</time></trkpt><trkpt lat="39.31808640640485" lon="8.533484678324383"><ele>205.66666666666666</ele><time>2026-04-27T17:24:15.01Z</time></trkpt><trkpt lat="39.31794234185429" lon="8.533558296821237"><ele>206.33333333333331</ele><time>2026-04-27T17:24:16.01Z</time></trkpt><trkpt lat="39.31779928330452" lon="8.533626819220885"><ele>207.0</ele><time>2026-04-27T17:24:17.01Z</time></trkpt><trkpt lat="39.317659806639824" lon="8.533693057955565"><ele>207.0</ele><time>2026-04-27T17:24:18.01Z</time></trkpt><trkpt lat="39.3175184089797" lon="8.53375206541791"><ele>207.0</ele><time>2026-04-27T17:24:19.01Z</time></trkpt><trkpt lat="39.3173734872977" lon="8.53380632059522"><ele>207.0</ele><time>2026-04-27T17:24:20.01Z</time></trkpt><trkpt lat="39.31722923867049" lon="8.533857147974839"><ele>207.0</ele><time>2026-04-27T17:24:21.01Z</time></trkpt><trkpt lat="39.31708232097236" lon="8.533903795209747"><ele>207.0</ele><time>2026-04-27T17:24:22.01Z</time></trkpt><trkpt lat="39.31694582502214" lon="8.53394005138341"><ele>207.0</ele><time>2026-04-27T17:24:23.01Z</time></trkpt><trkpt lat="39.31681319393827" lon="8.533977253460586"><ele>207.0</ele><time>2026-04-27T17:24:24.01Z</time></trkpt><trkpt lat="39.31667700955757" lon="8.533987674557068"><ele>207.0</ele><time>2026-04-27T17:24:25.01Z</time></trkpt><trkpt lat="39.316553026269084" lon="8.534016836513471"><ele>207.0</ele><time>2026-04-27T17:24:26.01Z</time></trkpt><trkpt lat="39.31643675521786" lon="8.534049589384995"><ele>207.0</ele><time>2026-04-27T17:24:27.01Z</time></trkpt><trkpt lat="39.31632559944214" lon="8.534104052858643"><ele>207.0</ele><time>2026-04-27T17:24:28.01Z</time></trkpt><trkpt lat="39.31620515482349" lon="8.534139054565946"><ele>207.0</ele><time>2026-04-27T17:24:29.01Z</time></trkpt><trkpt lat="39.316103528445595" lon="8.534168775423309"><ele>206.2</ele><time>2026-04-27T17:24:30.01Z</time></trkpt><trkpt lat="39.315991385996455" lon="8.534203799939469"><ele>205.39999999999998</ele><time>2026-04-27T17:24:31.01Z</time></trkpt><trkpt lat="39.315883071338654" lon="8.534237240017385"><ele>204.60000000000002</ele><time>2026-04-27T17:24:32.01Z</time></trkpt><trkpt lat="39.31577388531479" lon="8.534246019207957"><ele>203.8</ele><time>2026-04-27T17:24:33.01Z</time></trkpt><trkpt lat="39.31566348167984" lon="8.534273825052514"><ele>203.0</ele><time>2026-04-27T17:24:34.01Z</time></trkpt><trkpt lat="39.31556470706204" lon="8.534292742169832"><ele>203.0</ele><time>2026-04-27T17:24:35.01Z</time></trkpt><trkpt lat="39.315472177888154" lon="8.534279762800539"><ele>203.0</ele><time>2026-04-27T17:24:36.01Z</time></trkpt><trkpt lat="39.315379965516286" lon="8.53425413786923"><ele>203.0</ele><time>2026-04-27T17:24:37.01Z</time></trkpt><trkpt lat="39.31528450815468" lon="8.534203229320795"><ele>203.0</ele><time>2026-04-27T17:24:38.01Z</time></trkpt><trkpt lat="39.315176303795226" lon="8.534181316957167"><ele>203.0</ele><time>2026-04-27T17:24:39.01Z</time></trkpt><trkpt lat="39.31510878742038" lon="8.534189305269877"><ele>203.00000000000003</ele><time>2026-04-27T17:24:40.01Z</time></trkpt><trkpt lat="39.31502651414965" lon="8.534163105716846"><ele>203.0</ele><time>2026-04-27T17:24:41.01Z</time></trkpt><trkpt lat="39.31495489272202" lon="8.534154045297594"><ele>203.0</ele><time>2026-04-27T17:24:42.01Z</time></trkpt><trkpt lat="39.31487988453582" lon="8.53415590687686"><ele>203.0</ele><time>2026-04-27T17:24:43.01Z</time></trkpt><trkpt lat="39.3148067631715" lon="8.534171376838314"><ele>203.00000000000003</ele><time>2026-04-27T17:24:44.01Z</time></trkpt><trkpt lat="39.31472475526728" lon="8.534237103277828"><ele>203.0</ele><time>2026-04-27T17:24:45.01Z</time></trkpt><trkpt lat="39.314635753515866" lon="8.534285265160825"><ele>203.2</ele><time>2026-04-27T17:24:46.01Z</time></trkpt><trkpt lat="39.31454337917939" lon="8.534325239720681"><ele>203.4</ele><time>2026-04-27T17:24:47.01Z</time></trkpt><trkpt lat="39.31446086806385" lon="8.534376962824433"><ele>203.6</ele><time>2026-04-27T17:24:48.01Z</time></trkpt><trkpt lat="39.31437709388122" lon="8.534453032005562"><ele>203.79999999999998</ele><time>2026-04-27T17:24:49.01Z</time></trkpt><trkpt lat="39.314271558325906" lon="8.534516712591977"><ele>204.0</ele><time>2026-04-27T17:24:50.01Z</time></trkpt><trkpt lat="39.3141902260364" lon="8.53460447921789"><ele>204.0</ele><time>2026-04-27T17:24:51.01Z</time></trkpt><trkpt lat="39.31412652205336" lon="8.534695073473538"><ele>204.0</ele><time>2026-04-27T17:24:52.01Z</time></trkpt><trkpt lat="39.314055032506126" lon="8.534800488911817"><ele>204.0</ele><time>2026-04-27T17:24:53.01Z</time></trkpt><trkpt lat="39.31397767346598" lon="8.534923629113882"><ele>204.0</ele><time>2026-04-27T17:24:54.01Z</time></trkpt><trkpt lat="39.31389463124606" lon="8.53506076175903"><ele>202.75</ele><time>2026-04-27T17:24:55.01Z</time></trkpt><trkpt lat="39.31382062018719" lon="8.535194425526871"><ele>201.5</ele><time>2026-04-27T17:24:56.01Z</time></trkpt><trkpt lat="39.31375447271173" lon="8.535327776274004"><ele>200.25</ele><time>2026-04-27T17:24:57.01Z</time></trkpt><trkpt lat="39.31369714003961" lon="8.53545400614885"><ele>199.0</ele><time>2026-04-27T17:24:58.011Z</time></trkpt><trkpt lat="39.313644071798535" lon="8.535573834211107"><ele>198.6</ele><time>2026-04-27T17:24:59.011Z</time></trkpt><trkpt lat="39.31360172338938" lon="8.5356733165844"><ele>198.2</ele><time>2026-04-27T17:25:00.011Z</time></trkpt><trkpt lat="39.313553914246334" lon="8.535770977475524"><ele>197.79999999999998</ele><time>2026-04-27T17:25:01.011Z</time></trkpt><trkpt lat="39.31349930464736" lon="8.535868075638883"><ele>197.39999999999998</ele><time>2026-04-27T17:25:02.011Z</time></trkpt><trkpt lat="39.31345514006519" lon="8.535979598386588"><ele>197.0</ele><time>2026-04-27T17:25:03.011Z</time></trkpt><trkpt lat="39.31339531846573" lon="8.536060978944958"><ele>197.0</ele><time>2026-04-27T17:25:04.011Z</time></trkpt><trkpt lat="39.31331946406809" lon="8.53612777087381"><ele>197.0</ele><time>2026-04-27T17:25:05.011Z</time></trkpt><trkpt lat="39.31325106543664" lon="8.536165672018232"><ele>197.0</ele><time>2026-04-27T17:25:06.011Z</time></trkpt><trkpt lat="39.31319520465001" lon="8.53620807983737"><ele>197.0</ele><time>2026-04-27T17:25:08.011Z</time></trkpt><trkpt lat="39.31311657784993" lon="8.536352982244887"><ele>197.0</ele><time>2026-04-27T17:25:10.011Z</time></trkpt><trkpt lat="39.313059257153164" lon="8.536274536404573"><ele>196.66666666666669</ele><time>2026-04-27T17:25:15.011Z</time></trkpt><trkpt lat="39.31300420775157" lon="8.53621373998027"><ele>196.33333333333334</ele><time>2026-04-27T17:25:18.011Z</time></trkpt><trkpt lat="39.312927984806436" lon="8.536129905008949"><ele>196.0</ele><time>2026-04-27T17:25:20.011Z</time></trkpt><trkpt lat="39.31286162308603" lon="8.536056916054674"><ele>195.66666666666669</ele><time>2026-04-27T17:25:22.011Z</time></trkpt><trkpt lat="39.3128002340943" lon="8.536017026701192"><ele>195.33333333333334</ele><time>2026-04-27T17:25:24.011Z</time></trkpt><trkpt lat="39.312745141686584" lon="8.536056486430285"><ele>195.0</ele><time>2026-04-27T17:25:27.011Z</time></trkpt><trkpt lat="39.312692399452246" lon="8.536121037384257"><ele>193.8</ele><time>2026-04-27T17:25:30.011Z</time></trkpt><trkpt lat="39.312651535332265" lon="8.536224878959013"><ele>192.6</ele><time>2026-04-27T17:25:32.011Z</time></trkpt><trkpt lat="39.31258548699186" lon="8.536362218788497"><ele>191.39999999999998</ele><time>2026-04-27T17:25:34.011Z</time></trkpt><trkpt lat="39.3125338353229" lon="8.53642613111189"><ele>190.2</ele><time>2026-04-27T17:25:35.011Z</time></trkpt><trkpt lat="39.31249897089089" lon="8.53649523209388"><ele>189.0</ele><time>2026-04-27T17:25:36.011Z</time></trkpt><trkpt lat="39.312430984202265" lon="8.536632190217071"><ele>189.0</ele><time>2026-04-27T17:25:38.011Z</time></trkpt><trkpt lat="39.312398394758006" lon="8.536716935423957"><ele>189.0</ele><time>2026-04-27T17:25:39.011Z</time></trkpt><trkpt lat="39.31236047319478" lon="8.536794552837101"><ele>189.0</ele><time>2026-04-27T17:25:40.011Z</time></trkpt><trkpt lat="39.31231425554137" lon="8.536895252683417"><ele>189.0</ele><time>2026-04-27T17:25:42.011Z</time></trkpt><trkpt lat="39.31228140973274" lon="8.536968578817246"><ele>189.0</ele><time>2026-04-27T17:25:45.011Z</time></trkpt><trkpt lat="39.31236440025936" lon="8.537075441631616"><ele>189.0</ele><time>2026-04-27T17:25:47.011Z</time></trkpt><trkpt lat="39.312445301874355" lon="8.53714154591861"><ele>188.83333333333334</ele><time>2026-04-27T17:25:49.011Z</time></trkpt><trkpt lat="39.31252029825685" lon="8.53721178148228"><ele>188.66666666666666</ele><time>2026-04-27T17:25:51.011Z</time></trkpt><trkpt lat="39.31260955834111" lon="8.537282517194955"><ele>188.5</ele><time>2026-04-27T17:25:53.011Z</time></trkpt><trkpt lat="39.31268980612769" lon="8.537346452024035"><ele>188.33333333333331</ele><time>2026-04-27T17:25:55.011Z</time></trkpt><trkpt lat="39.3127668813195" lon="8.537382613526985"><ele>188.16666666666666</ele><time>2026-04-27T17:25:57.011Z</time></trkpt><trkpt lat="39.312832911012265" lon="8.53736259929161"><ele>188.0</ele><time>2026-04-27T17:26:15.01Z</time></trkpt><trkpt lat="39.3128906775395" lon="8.537284319348558"><ele>188.0</ele><time>2026-04-27T17:26:17.01Z</time></trkpt><trkpt lat="39.312934355585924" lon="8.537155291909146"><ele>188.0</ele><time>2026-04-27T17:26:19.01Z</time></trkpt><trkpt lat="39.312959201876325" lon="8.53707462349233"><ele>188.0</ele><time>2026-04-27T17:26:20.01Z</time></trkpt><trkpt lat="39.31298542033969" lon="8.536997268252014"><ele>188.0</ele><time>2026-04-27T17:26:21.01Z</time></trkpt><trkpt lat="39.31302211737678" lon="8.536858265394356"><ele>188.0</ele><time>2026-04-27T17:26:23.01Z</time></trkpt><trkpt lat="39.31304946074391" lon="8.536782287139019"><ele>188.0</ele><time>2026-04-27T17:26:25.01Z</time></trkpt><trkpt lat="39.31307822850513" lon="8.53669921491019"><ele>188.16666666666666</ele><time>2026-04-27T17:26:28.01Z</time></trkpt><trkpt lat="39.31310407907846" lon="8.536607382103563"><ele>188.33333333333331</ele><time>2026-04-27T17:26:35.01Z</time></trkpt><trkpt lat="39.31311210611524" lon="8.536524568155407"><ele>188.5</ele><time>2026-04-27T17:26:41.01Z</time></trkpt><trkpt lat="39.313095505160575" lon="8.536439259660915"><ele>188.66666666666666</ele><time>2026-04-27T17:29:00.011Z</time></trkpt><trkpt lat="39.31298152378232" lon="8.53640660921585"><ele>188.83333333333334</ele><time>2026-04-27T17:29:28.012Z</time></trkpt><trkpt lat="39.31306522038481" lon="8.536453984355012"><ele>189.0</ele><time>2026-04-27T17:29:53.012Z</time></trkpt><trkpt lat="39.313190313127976" lon="8.536402605322984"><ele>189.0</ele><time>2026-04-27T17:32:04.012Z</time></trkpt><trkpt lat="39.31311473417979" lon="8.536399408574875"><ele>189.0</ele><time>2026-04-27T17:35:23.013Z</time></trkpt><trkpt lat="39.313066619096034" lon="8.536483096901813"><ele>189.0</ele><time>2026-04-27T17:51:34.018Z</time></trkpt><trkpt lat="39.31299512588441" lon="8.536464883577016"><ele>189.0</ele><time>2026-04-27T17:58:30.978Z</time></trkpt><trkpt lat="39.31294936320445" lon="8.53653245433061"><ele>189.0</ele><time>2026-04-27T17:58:46.978Z</time></trkpt><trkpt lat="39.31299177557677" lon="8.536468146232595"><ele>189.0</ele><time>2026-04-27T18:00:08.978Z</time></trkpt><trkpt lat="39.312966502496145" lon="8.536575060393961"><ele>189.0</ele><time>2026-04-27T18:04:27.977Z</time></trkpt><trkpt lat="39.31299294558892" lon="8.536490560578939"><ele>189.0</ele><time>2026-04-27T18:04:43.977Z</time></trkpt><trkpt lat="39.31296850867777" lon="8.536408451956945"><ele>189.0</ele><time>2026-04-27T18:04:58.977Z</time></trkpt></trkseg><trkseg><trkpt lat="39.296788604549064" lon="8.554440296206806"><ele>175.0</ele><time>2026-04-28T07:18:01.879Z</time></trkpt><trkpt lat="39.296868177182475" lon="8.554457317075006"><ele>175.0</ele><time>2026-04-28T07:18:05.879Z</time></trkpt><trkpt lat="39.29692289147573" lon="8.554403997853122"><ele>175.0</ele><time>2026-04-28T07:18:07.879Z</time></trkpt><trkpt lat="39.296993787796644" lon="8.55436107797907"><ele>175.0</ele><time>2026-04-28T07:18:09.879Z</time></trkpt><trkpt lat="39.297078860646" lon="8.55433011566182"><ele>175.0</ele><time>2026-04-28T07:18:11.879Z</time></trkpt><trkpt lat="39.29716698015217" lon="8.554278917592669"><ele>175.0</ele><time>2026-04-28T07:18:13.879Z</time></trkpt><trkpt lat="39.297247726364354" lon="8.55423121384071"><ele>174.2</ele><time>2026-04-28T07:18:15.879Z</time></trkpt><trkpt lat="39.297349387092666" lon="8.554196594204564"><ele>173.4</ele><time>2026-04-28T07:18:17.879Z</time></trkpt><trkpt lat="39.29745643708702" lon="8.554133176696704"><ele>172.60000000000002</ele><time>2026-04-28T07:18:19.879Z</time></trkpt><trkpt lat="39.29757303289977" lon="8.554055771698795"><ele>171.8</ele><time>2026-04-28T07:18:21.879Z</time></trkpt><trkpt lat="39.29763401159741" lon="8.554018697593047"><ele>171.0</ele><time>2026-04-28T07:18:22.879Z</time></trkpt><trkpt lat="39.297738123864015" lon="8.55398032247794"><ele>171.0</ele><time>2026-04-28T07:18:24.879Z</time></trkpt><trkpt lat="39.29782959912814" lon="8.553952462233026"><ele>171.0</ele><time>2026-04-28T07:18:26.879Z</time></trkpt><trkpt lat="39.297903959806334" lon="8.553959836105717"><ele>171.0</ele><time>2026-04-28T07:18:35.879Z</time></trkpt><trkpt lat="39.29794808711409" lon="8.554074070801619"><ele>171.0</ele><time>2026-04-28T07:18:38.879Z</time></trkpt><trkpt lat="39.29797023992447" lon="8.554181652524665"><ele>171.0</ele><time>2026-04-28T07:18:40.879Z</time></trkpt><trkpt lat="39.2979983967535" lon="8.554323212804059"><ele>170.99999999999997</ele><time>2026-04-28T07:18:42.879Z</time></trkpt><trkpt lat="39.29800953241092" lon="8.554405765215478"><ele>171.0</ele><time>2026-04-28T07:18:43.879Z</time></trkpt><trkpt lat="39.29802020597768" lon="8.55449008767536"><ele>171.0</ele><time>2026-04-28T07:18:44.879Z</time></trkpt><trkpt lat="39.298021767729274" lon="8.554575380417106"><ele>171.0</ele><time>2026-04-28T07:18:45.879Z</time></trkpt><trkpt lat="39.29802643506728" lon="8.554662207609741"><ele>171.0</ele><time>2026-04-28T07:18:46.879Z</time></trkpt><trkpt lat="39.29804465056908" lon="8.554751772247002"><ele>170.99999999999997</ele><time>2026-04-28T07:18:47.879Z</time></trkpt><trkpt lat="39.29807750752226" lon="8.554831517588855"><ele>171.0</ele><time>2026-04-28T07:18:48.879Z</time></trkpt><trkpt lat="39.29810613351623" lon="8.554907172309873"><ele>170.16666666666666</ele><time>2026-04-28T07:18:49.879Z</time></trkpt><trkpt lat="39.29814544728286" lon="8.554991015793684"><ele>169.33333333333334</ele><time>2026-04-28T07:18:50.879Z</time></trkpt><trkpt lat="39.298190733303265" lon="8.555089051233633"><ele>168.5</ele><time>2026-04-28T07:18:51.879Z</time></trkpt><trkpt lat="39.29822983718955" lon="8.555177223556063"><ele>167.66666666666669</ele><time>2026-04-28T07:18:52.879Z</time></trkpt><trkpt lat="39.2982646789798" lon="8.555271557536098"><ele>166.83333333333334</ele><time>2026-04-28T07:18:53.879Z</time></trkpt><trkpt lat="39.298307965350254" lon="8.555362416628826"><ele>166.0</ele><time>2026-04-28T07:18:54.879Z</time></trkpt><trkpt lat="39.298348320218444" lon="8.55543575291022"><ele>165.0</ele><time>2026-04-28T07:18:55.879Z</time></trkpt><trkpt lat="39.29841200885945" lon="8.55553705866218"><ele>164.0</ele><time>2026-04-28T07:18:57.879Z</time></trkpt><trkpt lat="39.29841549520282" lon="8.55565581974209"><ele>163.0</ele><time>2026-04-28T07:18:59.879Z</time></trkpt><trkpt lat="39.298428278835864" lon="8.555763134085696"><ele>162.0</ele><time>2026-04-28T07:19:00.879Z</time></trkpt><trkpt lat="39.298447821602196" lon="8.55587693639734"><ele>161.0</ele><time>2026-04-28T07:19:01.879Z</time></trkpt><trkpt lat="39.29845924653665" lon="8.55600226969577"><ele>161.0</ele><time>2026-04-28T07:19:02.879Z</time></trkpt><trkpt lat="39.29847343438688" lon="8.55612647913833"><ele>161.0</ele><time>2026-04-28T07:19:03.879Z</time></trkpt><trkpt lat="39.29849066843736" lon="8.556254173165097"><ele>161.0</ele><time>2026-04-28T07:19:04.879Z</time></trkpt><trkpt lat="39.29850785421854" lon="8.556373930614072"><ele>161.0</ele><time>2026-04-28T07:19:05.879Z</time></trkpt><trkpt lat="39.29852555092124" lon="8.556484962454245"><ele>161.0</ele><time>2026-04-28T07:19:06.879Z</time></trkpt><trkpt lat="39.29854111867398" lon="8.556577271089495"><ele>160.42857142857142</ele><time>2026-04-28T07:19:07.879Z</time></trkpt><trkpt lat="39.29856133586552" lon="8.556661253069032"><ele>159.85714285714286</ele><time>2026-04-28T07:19:08.879Z</time></trkpt><trkpt lat="39.29860131328642" lon="8.556750571638979"><ele>159.28571428571428</ele><time>2026-04-28T07:19:10.879Z</time></trkpt><trkpt lat="39.298664612480536" lon="8.556753163261652"><ele>158.71428571428572</ele><time>2026-04-28T07:19:13.879Z</time></trkpt><trkpt lat="39.298742018160624" lon="8.55670750987192"><ele>158.14285714285714</ele><time>2026-04-28T07:19:15.879Z</time></trkpt><trkpt lat="39.29880077740795" lon="8.55667371194244"><ele>157.57142857142856</ele><time>2026-04-28T07:19:16.879Z</time></trkpt><trkpt lat="39.29885671751166" lon="8.556623590153887"><ele>157.0</ele><time>2026-04-28T07:19:17.879Z</time></trkpt><trkpt lat="39.29891458308768" lon="8.556570426611522"><ele>156.79999999999998</ele><time>2026-04-28T07:19:18.879Z</time></trkpt><trkpt lat="39.29897502562613" lon="8.556510566135692"><ele>156.6</ele><time>2026-04-28T07:19:19.879Z</time></trkpt><trkpt lat="39.29905089212469" lon="8.556443775966443"><ele>156.39999999999998</ele><time>2026-04-28T07:19:20.879Z</time></trkpt><trkpt lat="39.299132763013304" lon="8.556375272131612"><ele>156.2</ele><time>2026-04-28T07:19:21.879Z</time></trkpt><trkpt lat="39.299212758302026" lon="8.556300207989814"><ele>156.0</ele><time>2026-04-28T07:19:22.879Z</time></trkpt><trkpt lat="39.29929557204531" lon="8.556225910936462"><ele>156.8</ele><time>2026-04-28T07:19:23.879Z</time></trkpt><trkpt lat="39.299380603459646" lon="8.556147452873912"><ele>157.6</ele><time>2026-04-28T07:19:24.879Z</time></trkpt><trkpt lat="39.29946950072064" lon="8.556064864939142"><ele>158.4</ele><time>2026-04-28T07:19:25.879Z</time></trkpt><trkpt lat="39.29956225558964" lon="8.55598480118007"><ele>159.2</ele><time>2026-04-28T07:19:26.879Z</time></trkpt><trkpt lat="39.29965428062653" lon="8.55590326089428"><ele>160.0</ele><time>2026-04-28T07:19:27.879Z</time></trkpt><trkpt lat="39.29974559644475" lon="8.555821427306721"><ele>159.4</ele><time>2026-04-28T07:19:28.879Z</time></trkpt><trkpt lat="39.29983834603848" lon="8.555758515205692"><ele>158.8</ele><time>2026-04-28T07:19:29.879Z</time></trkpt><trkpt lat="39.2999344942472" lon="8.555683821484893"><ele>158.2</ele><time>2026-04-28T07:19:30.879Z</time></trkpt><trkpt lat="39.300034118569585" lon="8.555613655503073"><ele>157.6</ele><time>2026-04-28T07:19:31.879Z</time></trkpt><trkpt lat="39.30013330411871" lon="8.555542456266625"><ele>157.0</ele><time>2026-04-28T07:19:32.879Z</time></trkpt><trkpt lat="39.300234666278705" lon="8.555478636200867"><ele>157.0</ele><time>2026-04-28T07:19:33.879Z</time></trkpt><trkpt lat="39.300335944734414" lon="8.555414957303901"><ele>157.0</ele><time>2026-04-28T07:19:34.876Z</time></trkpt><trkpt lat="39.30043945566376" lon="8.55535205263923"><ele>157.0</ele><time>2026-04-28T07:19:35.876Z</time></trkpt><trkpt lat="39.300543472162886" lon="8.555283189711156"><ele>157.0</ele><time>2026-04-28T07:19:36.876Z</time></trkpt><trkpt lat="39.3006513551341" lon="8.55521169086903"><ele>157.5</ele><time>2026-04-28T07:19:37.876Z</time></trkpt><trkpt lat="39.30075476026103" lon="8.555135614707185"><ele>158.0</ele><time>2026-04-28T07:19:38.877Z</time></trkpt><trkpt lat="39.30086397280946" lon="8.555073305479928"><ele>158.5</ele><time>2026-04-28T07:19:39.877Z</time></trkpt><trkpt lat="39.30097785818885" lon="8.555008724865477"><ele>159.0</ele><time>2026-04-28T07:19:40.876Z</time></trkpt><trkpt lat="39.301092892852544" lon="8.55494229704578"><ele>159.0</ele><time>2026-04-28T07:19:41.877Z</time></trkpt><trkpt lat="39.30120496707202" lon="8.554873902390451"><ele>159.0</ele><time>2026-04-28T07:19:42.877Z</time></trkpt><trkpt lat="39.30131548932837" lon="8.554806135362753"><ele>159.0</ele><time>2026-04-28T07:19:43.876Z</time></trkpt><trkpt lat="39.30142549775433" lon="8.554744699719393"><ele>159.0</ele><time>2026-04-28T07:19:44.876Z</time></trkpt><trkpt lat="39.30154000213423" lon="8.554689198735073"><ele>159.4</ele><time>2026-04-28T07:19:45.876Z</time></trkpt><trkpt lat="39.301639560213964" lon="8.554625232304225"><ele>159.8</ele><time>2026-04-28T07:19:46.876Z</time></trkpt><trkpt lat="39.30173008172266" lon="8.554568266094142"><ele>160.20000000000002</ele><time>2026-04-28T07:19:47.876Z</time></trkpt><trkpt lat="39.301817376346754" lon="8.55451528281605"><ele>160.60000000000002</ele><time>2026-04-28T07:19:48.876Z</time></trkpt><trkpt lat="39.30190094335218" lon="8.55445329015091"><ele>161.0</ele><time>2026-04-28T07:19:49.876Z</time></trkpt><trkpt lat="39.301974722152025" lon="8.554410383295469"><ele>161.0</ele><time>2026-04-28T07:19:50.876Z</time></trkpt><trkpt lat="39.30203400278563" lon="8.554365587763641"><ele>161.0</ele><time>2026-04-28T07:19:51.876Z</time></trkpt><trkpt lat="39.302127332092155" lon="8.554330552205942"><ele>161.0</ele><time>2026-04-28T07:19:53.876Z</time></trkpt><trkpt lat="39.3021991034683" lon="8.554385845851195"><ele>161.0</ele><time>2026-04-28T07:19:55.876Z</time></trkpt><trkpt lat="39.3022889623437" lon="8.55450156112697"><ele>161.0</ele><time>2026-04-28T07:19:57.876Z</time></trkpt><trkpt lat="39.30233821238348" lon="8.554561407120708"><ele>161.0</ele><time>2026-04-28T07:19:58.876Z</time></trkpt><trkpt lat="39.30239392703691" lon="8.554652061711206"><ele>161.0</ele><time>2026-04-28T07:20:00.876Z</time></trkpt><trkpt lat="39.3024495784017" lon="8.554736426351965"><ele>161.0</ele><time>2026-04-28T07:20:02.876Z</time></trkpt><trkpt lat="39.30254932577498" lon="8.554720812748187"><ele>161.0</ele><time>2026-04-28T07:20:06.876Z</time></trkpt><trkpt lat="39.30256258794733" lon="8.554617890989945"><ele>161.0</ele><time>2026-04-28T07:20:07.876Z</time></trkpt><trkpt lat="39.3025831025026" lon="8.554529273894534"><ele>161.0</ele><time>2026-04-28T07:20:08.876Z</time></trkpt><trkpt lat="39.30260847021653" lon="8.554435608201205"><ele>161.0</ele><time>2026-04-28T07:20:09.876Z</time></trkpt><trkpt lat="39.30263238458924" lon="8.55434730875581"><ele>161.0</ele><time>2026-04-28T07:20:10.876Z</time></trkpt><trkpt lat="39.30264903813543" lon="8.554258311738844"><ele>161.0</ele><time>2026-04-28T07:20:11.876Z</time></trkpt><trkpt lat="39.302674688752795" lon="8.554178494889742"><ele>161.0</ele><time>2026-04-28T07:20:12.876Z</time></trkpt><trkpt lat="39.30269943941144" lon="8.554065483798803"><ele>161.0</ele><time>2026-04-28T07:20:13.876Z</time></trkpt><trkpt lat="39.30273043484614" lon="8.553948226056397"><ele>161.0</ele><time>2026-04-28T07:20:14.876Z</time></trkpt><trkpt lat="39.30276467626667" lon="8.553828021597557"><ele>161.0</ele><time>2026-04-28T07:20:15.876Z</time></trkpt><trkpt lat="39.302798317540024" lon="8.553710794270849"><ele>161.5</ele><time>2026-04-28T07:20:16.876Z</time></trkpt><trkpt lat="39.302836477909935" lon="8.553601699029304"><ele>162.0</ele><time>2026-04-28T07:20:17.876Z</time></trkpt><trkpt lat="39.30286386413114" lon="8.55348708495853"><ele>162.5</ele><time>2026-04-28T07:20:18.876Z</time></trkpt><trkpt lat="39.30289686893199" lon="8.553380102143226"><ele>163.0</ele><time>2026-04-28T07:20:19.876Z</time></trkpt><trkpt lat="39.30293360386517" lon="8.55327720744847"><ele>163.5</ele><time>2026-04-28T07:20:20.876Z</time></trkpt><trkpt lat="39.3029584387557" lon="8.553194009837872"><ele>164.0</ele><time>2026-04-28T07:20:21.876Z</time></trkpt><trkpt lat="39.303011363530196" lon="8.553074852995206"><ele>164.0</ele><time>2026-04-28T07:20:23.876Z</time></trkpt><trkpt lat="39.3030774992667" lon="8.552944461486268"><ele>164.0</ele><time>2026-04-28T07:20:25.876Z</time></trkpt><trkpt lat="39.30310818744816" lon="8.552862564155538"><ele>164.0</ele><time>2026-04-28T07:20:26.876Z</time></trkpt><trkpt lat="39.30312458289631" lon="8.552760910012678"><ele>164.0</ele><time>2026-04-28T07:20:27.876Z</time></trkpt><trkpt lat="39.3031376751706" lon="8.552660975026619"><ele>164.0</ele><time>2026-04-28T07:20:28.876Z</time></trkpt><trkpt lat="39.30315346248748" lon="8.552558131184677"><ele>164.0</ele><time>2026-04-28T07:20:29.876Z</time></trkpt><trkpt lat="39.30317646005619" lon="8.552448152381752"><ele>164.0</ele><time>2026-04-28T07:20:30.876Z</time></trkpt><trkpt lat="39.30319885780985" lon="8.552333823792187"><ele>164.0</ele><time>2026-04-28T07:20:31.876Z</time></trkpt><trkpt lat="39.30322463165136" lon="8.552218830260257"><ele>164.0</ele><time>2026-04-28T07:20:32.876Z</time></trkpt><trkpt lat="39.30325257611903" lon="8.55210469445748"><ele>164.0</ele><time>2026-04-28T07:20:33.876Z</time></trkpt><trkpt lat="39.30328219155549" lon="8.551992409806443"><ele>164.0</ele><time>2026-04-28T07:20:34.876Z</time></trkpt><trkpt lat="39.303311177639536" lon="8.55188317998234"><ele>164.0</ele><time>2026-04-28T07:20:35.876Z</time></trkpt><trkpt lat="39.3033421059482" lon="8.551774332536034"><ele>164.0</ele><time>2026-04-28T07:20:36.876Z</time></trkpt><trkpt lat="39.30337539852909" lon="8.551664203181383"><ele>164.0</ele><time>2026-04-28T07:20:37.876Z</time></trkpt><trkpt lat="39.303405205413426" lon="8.551549922657198"><ele>164.0</ele><time>2026-04-28T07:20:38.876Z</time></trkpt><trkpt lat="39.30343919965485" lon="8.5514390326808"><ele>164.0</ele><time>2026-04-28T07:20:39.876Z</time></trkpt><trkpt lat="39.30347058502626" lon="8.551332657551661"><ele>164.0</ele><time>2026-04-28T07:20:40.876Z</time></trkpt><trkpt lat="39.30350100001149" lon="8.551224221013648"><ele>164.0</ele><time>2026-04-28T07:20:41.876Z</time></trkpt><trkpt lat="39.30353130119606" lon="8.551113677684574"><ele>164.0</ele><time>2026-04-28T07:20:42.876Z</time></trkpt><trkpt lat="39.303558901617784" lon="8.551007533074271"><ele>164.0</ele><time>2026-04-28T07:20:43.876Z</time></trkpt><trkpt lat="39.30358524327274" lon="8.550917130472705"><ele>164.0</ele><time>2026-04-28T07:20:44.876Z</time></trkpt><trkpt lat="39.3036110849972" lon="8.550829969019604"><ele>164.0</ele><time>2026-04-28T07:20:45.876Z</time></trkpt><trkpt lat="39.30364069337137" lon="8.5507435769131"><ele>164.5</ele><time>2026-04-28T07:20:46.876Z</time></trkpt><trkpt lat="39.303669497952086" lon="8.550656778423512"><ele>165.0</ele><time>2026-04-28T07:20:47.876Z</time></trkpt><trkpt lat="39.30369360548831" lon="8.55055459062656"><ele>165.5</ele><time>2026-04-28T07:20:48.876Z</time></trkpt><trkpt lat="39.30372347912296" lon="8.550457639690586"><ele>166.0</ele><time>2026-04-28T07:20:49.876Z</time></trkpt><trkpt lat="39.30374676533045" lon="8.550343432106931"><ele>166.5</ele><time>2026-04-28T07:20:50.876Z</time></trkpt><trkpt lat="39.30377124263715" lon="8.550243974159306"><ele>167.0</ele><time>2026-04-28T07:20:51.876Z</time></trkpt><trkpt lat="39.30379730257367" lon="8.550154997366551"><ele>166.83333333333331</ele><time>2026-04-28T07:20:52.876Z</time></trkpt><trkpt lat="39.30383062359209" lon="8.550069293716803"><ele>166.66666666666666</ele><time>2026-04-28T07:20:53.876Z</time></trkpt><trkpt lat="39.3038582888855" lon="8.54998273454025"><ele>166.5</ele><time>2026-04-28T07:20:54.876Z</time></trkpt><trkpt lat="39.3038847824634" lon="8.549895503193863"><ele>166.33333333333334</ele><time>2026-04-28T07:20:55.876Z</time></trkpt><trkpt lat="39.303915961706046" lon="8.549795727165838"><ele>166.16666666666669</ele><time>2026-04-28T07:20:56.876Z</time></trkpt><trkpt lat="39.30394502344272" lon="8.549692813957138"><ele>166.0</ele><time>2026-04-28T07:20:57.876Z</time></trkpt><trkpt lat="39.30398310136458" lon="8.549608104296391"><ele>166.4</ele><time>2026-04-28T07:20:58.876Z</time></trkpt><trkpt lat="39.3040130443227" lon="8.549513753636742"><ele>166.8</ele><time>2026-04-28T07:20:59.876Z</time></trkpt><trkpt lat="39.304055296508565" lon="8.549431711197947"><ele>167.20000000000002</ele><time>2026-04-28T07:21:00.876Z</time></trkpt><trkpt lat="39.30410191743241" lon="8.549372136365855"><ele>167.60000000000002</ele><time>2026-04-28T07:21:01.876Z</time></trkpt><trkpt lat="39.304096197803716" lon="8.549273451290588"><ele>168.0</ele><time>2026-04-28T07:21:03.876Z</time></trkpt><trkpt lat="39.30425158203709" lon="8.54918176752842"><ele>168.0</ele><time>2026-04-28T07:21:06.876Z</time></trkpt><trkpt lat="39.30437150067533" lon="8.54930651267178"><ele>168.0</ele><time>2026-04-28T07:21:08.876Z</time></trkpt><trkpt lat="39.30449576208491" lon="8.549352068170151"><ele>168.0</ele><time>2026-04-28T07:21:10.876Z</time></trkpt><trkpt lat="39.304557312154536" lon="8.549410697682958"><ele>168.0</ele><time>2026-04-28T07:21:11.876Z</time></trkpt><trkpt lat="39.30462275329225" lon="8.549478534560363"><ele>168.0</ele><time>2026-04-28T07:21:12.876Z</time></trkpt><trkpt lat="39.304698152318245" lon="8.549553278351485"><ele>167.60000000000002</ele><time>2026-04-28T07:21:13.876Z</time></trkpt><trkpt lat="39.30476839614853" lon="8.549617078573215"><ele>167.20000000000002</ele><time>2026-04-28T07:21:14.876Z</time></trkpt><trkpt lat="39.304840416865986" lon="8.549684463242237"><ele>166.8</ele><time>2026-04-28T07:21:15.876Z</time></trkpt><trkpt lat="39.304913225124174" lon="8.549760059255744"><ele>166.4</ele><time>2026-04-28T07:21:16.876Z</time></trkpt><trkpt lat="39.3049880460072" lon="8.549835791208366"><ele>166.0</ele><time>2026-04-28T07:21:17.876Z</time></trkpt><trkpt lat="39.3050666128306" lon="8.54991397944334"><ele>166.0</ele><time>2026-04-28T07:21:18.876Z</time></trkpt><trkpt lat="39.30514859454144" lon="8.549990843544963"><ele>166.0</ele><time>2026-04-28T07:21:19.876Z</time></trkpt><trkpt lat="39.30522797388129" lon="8.550070140958889"><ele>166.0</ele><time>2026-04-28T07:21:20.876Z</time></trkpt><trkpt lat="39.30530778590707" lon="8.550148315742689"><ele>166.0</ele><time>2026-04-28T07:21:21.876Z</time></trkpt><trkpt lat="39.305382112325745" lon="8.550220714773173"><ele>166.0</ele><time>2026-04-28T07:21:22.876Z</time></trkpt><trkpt lat="39.305445828999396" lon="8.55028284031952"><ele>166.0</ele><time>2026-04-28T07:21:23.876Z</time></trkpt><trkpt lat="39.30551361139838" lon="8.550337562264078"><ele>166.0</ele><time>2026-04-28T07:21:24.876Z</time></trkpt><trkpt lat="39.30559146383329" lon="8.55038616966732"><ele>166.0</ele><time>2026-04-28T07:21:26.876Z</time></trkpt><trkpt lat="39.30567222517913" lon="8.55044017747725"><ele>166.0</ele><time>2026-04-28T07:21:30.876Z</time></trkpt><trkpt lat="39.30611010615429" lon="8.550558046309693"><ele>165.60000000000002</ele><time>2026-04-28T07:21:31.876Z</time></trkpt><trkpt lat="39.30620378632003" lon="8.550550045419692"><ele>165.2</ele><time>2026-04-28T07:21:32.876Z</time></trkpt><trkpt lat="39.30629486006517" lon="8.550526062038152"><ele>164.8</ele><time>2026-04-28T07:21:33.876Z</time></trkpt><trkpt lat="39.30638135494414" lon="8.550488200652039"><ele>164.39999999999998</ele><time>2026-04-28T07:21:34.876Z</time></trkpt><trkpt lat="39.306466431479144" lon="8.550439959103173"><ele>164.0</ele><time>2026-04-28T07:21:35.876Z</time></trkpt><trkpt lat="39.30654862873376" lon="8.550379599650272"><ele>164.0</ele><time>2026-04-28T07:21:36.876Z</time></trkpt><trkpt lat="39.30662418037976" lon="8.550312014327067"><ele>164.0</ele><time>2026-04-28T07:21:37.876Z</time></trkpt><trkpt lat="39.306695314882305" lon="8.550236777844653"><ele>164.0</ele><time>2026-04-28T07:21:38.876Z</time></trkpt><trkpt lat="39.306762712485316" lon="8.550148073432174"><ele>164.0</ele><time>2026-04-28T07:21:39.876Z</time></trkpt><trkpt lat="39.306822930765506" lon="8.550052076422201"><ele>164.0</ele><time>2026-04-28T07:21:40.874Z</time></trkpt><trkpt lat="39.30687654852542" lon="8.549947946578571"><ele>164.0</ele><time>2026-04-28T07:21:41.874Z</time></trkpt><trkpt lat="39.30692400248671" lon="8.549838140664782"><ele>164.0</ele><time>2026-04-28T07:21:42.874Z</time></trkpt><trkpt lat="39.30695934918834" lon="8.549722288706173"><ele>164.0</ele><time>2026-04-28T07:21:43.874Z</time></trkpt><trkpt lat="39.306979701119616" lon="8.54961433071431"><ele>164.0</ele><time>2026-04-28T07:21:44.874Z</time></trkpt><trkpt lat="39.30699105018431" lon="8.54951513568501"><ele>164.0</ele><time>2026-04-28T07:21:45.874Z</time></trkpt><trkpt lat="39.30699610605724" lon="8.549412230468164"><ele>164.0</ele><time>2026-04-28T07:21:46.874Z</time></trkpt><trkpt lat="39.30699566991606" lon="8.549312808681185"><ele>164.16666666666666</ele><time>2026-04-28T07:21:47.874Z</time></trkpt><trkpt lat="39.30699536515804" lon="8.549223434248715"><ele>164.33333333333331</ele><time>2026-04-28T07:21:48.874Z</time></trkpt><trkpt lat="39.30697309364256" lon="8.549134894838252"><ele>164.5</ele><time>2026-04-28T07:21:49.874Z</time></trkpt><trkpt lat="39.30699133949796" lon="8.54904647944806"><ele>164.66666666666666</ele><time>2026-04-28T07:21:50.874Z</time></trkpt><trkpt lat="39.3070251050506" lon="8.548965673025466"><ele>164.83333333333334</ele><time>2026-04-28T07:21:51.874Z</time></trkpt><trkpt lat="39.30704062030203" lon="8.548840945030955"><ele>165.0</ele><time>2026-04-28T07:21:53.874Z</time></trkpt><trkpt lat="39.30708733304617" lon="8.54874684921367"><ele>165.0</ele><time>2026-04-28T07:21:56.874Z</time></trkpt><trkpt lat="39.30710404407576" lon="8.548598787952079"><ele>165.0</ele><time>2026-04-28T07:21:58.874Z</time></trkpt><trkpt lat="39.30711280782309" lon="8.548506391391276"><ele>165.0</ele><time>2026-04-28T07:21:59.874Z</time></trkpt><trkpt lat="39.307130266027116" lon="8.548427210712438"><ele>165.0</ele><time>2026-04-28T07:22:00.874Z</time></trkpt><trkpt lat="39.30720792871218" lon="8.548278314095544"><ele>165.0</ele><time>2026-04-28T07:22:02.874Z</time></trkpt><trkpt lat="39.30725819242579" lon="8.548196512234071"><ele>165.0</ele><time>2026-04-28T07:22:03.874Z</time></trkpt><trkpt lat="39.30731197206941" lon="8.548113849020488"><ele>165.0</ele><time>2026-04-28T07:22:04.874Z</time></trkpt><trkpt lat="39.307372766606804" lon="8.548027171515141"><ele>165.0</ele><time>2026-04-28T07:22:05.874Z</time></trkpt><trkpt lat="39.30743642933107" lon="8.547934874258026"><ele>165.0</ele><time>2026-04-28T07:22:06.874Z</time></trkpt><trkpt lat="39.30749564431348" lon="8.547839946637808"><ele>165.0</ele><time>2026-04-28T07:22:07.874Z</time></trkpt><trkpt lat="39.30755374445249" lon="8.547752702898842"><ele>165.2</ele><time>2026-04-28T07:22:08.874Z</time></trkpt><trkpt lat="39.30761146627679" lon="8.547663536457607"><ele>165.4</ele><time>2026-04-28T07:22:09.874Z</time></trkpt><trkpt lat="39.30767661735992" lon="8.547574457412946"><ele>165.60000000000002</ele><time>2026-04-28T07:22:10.874Z</time></trkpt><trkpt lat="39.30775100040884" lon="8.547491324160623"><ele>165.8</ele><time>2026-04-28T07:22:11.874Z</time></trkpt><trkpt lat="39.30782936243806" lon="8.547405280801998"><ele>166.0</ele><time>2026-04-28T07:22:12.874Z</time></trkpt><trkpt lat="39.30790875115509" lon="8.547312505033275"><ele>166.0</ele><time>2026-04-28T07:22:13.874Z</time></trkpt><trkpt lat="39.30798679618866" lon="8.54722448094143"><ele>166.0</ele><time>2026-04-28T07:22:14.874Z</time></trkpt><trkpt lat="39.308063630488824" lon="8.547130543985919"><ele>166.0</ele><time>2026-04-28T07:22:15.874Z</time></trkpt><trkpt lat="39.30814408955083" lon="8.547029335576164"><ele>166.0</ele><time>2026-04-28T07:22:16.874Z</time></trkpt><trkpt lat="39.308220637590075" lon="8.54693684822345"><ele>166.0</ele><time>2026-04-28T07:22:17.874Z</time></trkpt><trkpt lat="39.30829288767853" lon="8.546838657241612"><ele>166.8</ele><time>2026-04-28T07:22:18.874Z</time></trkpt><trkpt lat="39.3083686512109" lon="8.54674173071019"><ele>167.60000000000002</ele><time>2026-04-28T07:22:19.874Z</time></trkpt><trkpt lat="39.30844696822084" lon="8.54664285806976"><ele>168.4</ele><time>2026-04-28T07:22:20.874Z</time></trkpt><trkpt lat="39.30852705527716" lon="8.546537268107656"><ele>169.2</ele><time>2026-04-28T07:22:21.874Z</time></trkpt><trkpt lat="39.30860559100655" lon="8.546432723970455"><ele>170.0</ele><time>2026-04-28T07:22:22.874Z</time></trkpt><trkpt lat="39.30868070572911" lon="8.546331050287053"><ele>170.0</ele><time>2026-04-28T07:22:23.874Z</time></trkpt><trkpt lat="39.3087588396989" lon="8.54623366591882"><ele>170.0</ele><time>2026-04-28T07:22:24.874Z</time></trkpt><trkpt lat="39.30883493365119" lon="8.54613834043708"><ele>170.0</ele><time>2026-04-28T07:22:25.874Z</time></trkpt><trkpt lat="39.30890101928445" lon="8.546065880554012"><ele>170.0</ele><time>2026-04-28T07:22:26.874Z</time></trkpt><trkpt lat="39.30895665880092" lon="8.54599011491244"><ele>170.0</ele><time>2026-04-28T07:22:27.874Z</time></trkpt><trkpt lat="39.30901432071769" lon="8.545922089435377"><ele>170.4</ele><time>2026-04-28T07:22:28.874Z</time></trkpt><trkpt lat="39.309076960770064" lon="8.545847284917917"><ele>170.8</ele><time>2026-04-28T07:22:29.874Z</time></trkpt><trkpt lat="39.30913984633152" lon="8.545768246078794"><ele>171.2</ele><time>2026-04-28T07:22:30.874Z</time></trkpt><trkpt lat="39.30920002844915" lon="8.545687605001127"><ele>171.6</ele><time>2026-04-28T07:22:31.874Z</time></trkpt><trkpt lat="39.30926630199396" lon="8.545604295457268"><ele>172.0</ele><time>2026-04-28T07:22:32.874Z</time></trkpt><trkpt lat="39.309336018431864" lon="8.545511453596482"><ele>172.0</ele><time>2026-04-28T07:22:33.874Z</time></trkpt><trkpt lat="39.30940799930455" lon="8.54541687143785"><ele>172.0</ele><time>2026-04-28T07:22:34.874Z</time></trkpt><trkpt lat="39.30948307721743" lon="8.545327349011238"><ele>172.0</ele><time>2026-04-28T07:22:35.874Z</time></trkpt><trkpt lat="39.30955992552717" lon="8.54523133397792"><ele>172.0</ele><time>2026-04-28T07:22:36.874Z</time></trkpt><trkpt lat="39.30964325518951" lon="8.545124717270255"><ele>172.0</ele><time>2026-04-28T07:22:37.874Z</time></trkpt><trkpt lat="39.309730026155115" lon="8.545014624378815"><ele>172.6</ele><time>2026-04-28T07:22:38.874Z</time></trkpt><trkpt lat="39.30981038894552" lon="8.54491016425172"><ele>173.2</ele><time>2026-04-28T07:22:39.874Z</time></trkpt><trkpt lat="39.30988128579189" lon="8.54479766863596"><ele>173.8</ele><time>2026-04-28T07:22:40.874Z</time></trkpt><trkpt lat="39.30996600781668" lon="8.544703271703684"><ele>174.4</ele><time>2026-04-28T07:22:41.874Z</time></trkpt><trkpt lat="39.31004263841581" lon="8.544610989621638"><ele>175.0</ele><time>2026-04-28T07:22:42.874Z</time></trkpt><trkpt lat="39.3101084207956" lon="8.544523631111531"><ele>175.0</ele><time>2026-04-28T07:22:43.874Z</time></trkpt><trkpt lat="39.31016840660899" lon="8.544439521447234"><ele>175.0</ele><time>2026-04-28T07:22:44.874Z</time></trkpt><trkpt lat="39.310232809209275" lon="8.544361433393322"><ele>175.0</ele><time>2026-04-28T07:22:45.874Z</time></trkpt><trkpt lat="39.310297394562355" lon="8.544281388039703"><ele>175.0</ele><time>2026-04-28T07:22:46.874Z</time></trkpt><trkpt lat="39.31035895893159" lon="8.544216855218313"><ele>175.0</ele><time>2026-04-28T07:22:47.874Z</time></trkpt><trkpt lat="39.310417772274015" lon="8.544164147331095"><ele>175.0</ele><time>2026-04-28T07:22:48.874Z</time></trkpt><trkpt lat="39.3104826180305" lon="8.544140301463951"><ele>176.0</ele><time>2026-04-28T07:22:49.874Z</time></trkpt><trkpt lat="39.3105941133107" lon="8.54412600923679"><ele>177.0</ele><time>2026-04-28T07:22:51.874Z</time></trkpt><trkpt lat="39.31067962431801" lon="8.544074747265332"><ele>178.0</ele><time>2026-04-28T07:22:53.874Z</time></trkpt><trkpt lat="39.31067798459119" lon="8.543910801994976"><ele>179.0</ele><time>2026-04-28T07:22:55.874Z</time></trkpt><trkpt lat="39.31070947326799" lon="8.543746944775519"><ele>179.0</ele><time>2026-04-28T07:22:57.874Z</time></trkpt><trkpt lat="39.310727915036104" lon="8.543657129992985"><ele>179.0</ele><time>2026-04-28T07:22:58.874Z</time></trkpt><trkpt lat="39.31075454909785" lon="8.543537944577047"><ele>179.0</ele><time>2026-04-28T07:23:00.874Z</time></trkpt><trkpt lat="39.31070961523329" lon="8.543432741137572"><ele>179.0</ele><time>2026-04-28T07:23:35.874Z</time></trkpt><trkpt lat="39.31068993473278" lon="8.543542764943433"><ele>179.0</ele><time>2026-04-28T07:23:40.874Z</time></trkpt><trkpt lat="39.31065189171091" lon="8.543637565653281"><ele>179.0</ele><time>2026-04-28T07:23:41.874Z</time></trkpt><trkpt lat="39.31060792523255" lon="8.543740715133138"><ele>178.2</ele><time>2026-04-28T07:23:42.874Z</time></trkpt><trkpt lat="39.31056058150253" lon="8.543850053846741"><ele>177.39999999999998</ele><time>2026-04-28T07:23:43.874Z</time></trkpt><trkpt lat="39.31050249917262" lon="8.54396543695022"><ele>176.6</ele><time>2026-04-28T07:23:44.874Z</time></trkpt><trkpt lat="39.310442466285096" lon="8.544076279837878"><ele>175.8</ele><time>2026-04-28T07:23:45.874Z</time></trkpt><trkpt lat="39.3103252155087" lon="8.54415407736856"><ele>175.0</ele><time>2026-04-28T07:23:46.873Z</time></trkpt><trkpt lat="39.31023900132712" lon="8.544268720713852"><ele>175.0</ele><time>2026-04-28T07:23:47.872Z</time></trkpt><trkpt lat="39.310147715621014" lon="8.54438636205852"><ele>175.0</ele><time>2026-04-28T07:23:48.872Z</time></trkpt><trkpt lat="39.31004914838109" lon="8.544512165863658"><ele>175.0</ele><time>2026-04-28T07:23:49.872Z</time></trkpt><trkpt lat="39.309953774512365" lon="8.544633980359604"><ele>175.0</ele><time>2026-04-28T07:23:50.873Z</time></trkpt><trkpt lat="39.30985721940218" lon="8.544761692624876"><ele>175.25</ele><time>2026-04-28T07:23:51.873Z</time></trkpt><trkpt lat="39.309763772199005" lon="8.544884333957704"><ele>175.5</ele><time>2026-04-28T07:23:52.873Z</time></trkpt><trkpt lat="39.30966938167502" lon="8.544993208405314"><ele>175.75</ele><time>2026-04-28T07:23:53.872Z</time></trkpt><trkpt lat="39.30958037403516" lon="8.545104981765661"><ele>176.0</ele><time>2026-04-28T07:23:54.872Z</time></trkpt><trkpt lat="39.309505518884386" lon="8.545216753043315"><ele>175.60000000000002</ele><time>2026-04-28T07:23:55.872Z</time></trkpt><trkpt lat="39.309416302776256" lon="8.545304476776067"><ele>175.2</ele><time>2026-04-28T07:23:56.872Z</time></trkpt><trkpt lat="39.30934261486224" lon="8.545390617442663"><ele>174.8</ele><time>2026-04-28T07:23:57.872Z</time></trkpt><trkpt lat="39.309262182408744" lon="8.545455100429935"><ele>174.39999999999998</ele><time>2026-04-28T07:23:58.872Z</time></trkpt><trkpt lat="39.30918337204695" lon="8.545511059437763"><ele>174.0</ele><time>2026-04-28T07:23:59.872Z</time></trkpt><trkpt lat="39.309077553174816" lon="8.545546548460893"><ele>173.6</ele><time>2026-04-28T07:24:00.872Z</time></trkpt><trkpt lat="39.30896774422374" lon="8.545575991735875"><ele>173.2</ele><time>2026-04-28T07:24:01.872Z</time></trkpt><trkpt lat="39.308862292984635" lon="8.5455901569356"><ele>172.79999999999998</ele><time>2026-04-28T07:24:02.872Z</time></trkpt><trkpt lat="39.308741860616784" lon="8.545605431772461"><ele>172.39999999999998</ele><time>2026-04-28T07:24:03.872Z</time></trkpt><trkpt lat="39.308634320894306" lon="8.545586651511131"><ele>172.0</ele><time>2026-04-28T07:24:04.872Z</time></trkpt><trkpt lat="39.308543626917924" lon="8.545570171183831"><ele>172.0</ele><time>2026-04-28T07:24:05.872Z</time></trkpt><trkpt lat="39.30845952447592" lon="8.545550377493726"><ele>172.0</ele><time>2026-04-28T07:24:06.872Z</time></trkpt><trkpt lat="39.30835095531523" lon="8.545536492686034"><ele>172.0</ele><time>2026-04-28T07:24:08.872Z</time></trkpt><trkpt lat="39.30827787600315" lon="8.545568744783115"><ele>172.0</ele><time>2026-04-28T07:24:10.872Z</time></trkpt><trkpt lat="39.308210320097736" lon="8.545674736821498"><ele>172.0</ele><time>2026-04-28T07:24:12.872Z</time></trkpt><trkpt lat="39.30818401368203" lon="8.545776382399966"><ele>172.0</ele><time>2026-04-28T07:24:13.872Z</time></trkpt><trkpt lat="39.30814155536813" lon="8.545861916518694"><ele>172.0</ele><time>2026-04-28T07:24:14.872Z</time></trkpt><trkpt lat="39.3081068107911" lon="8.54593718856428"><ele>172.0</ele><time>2026-04-28T07:24:15.872Z</time></trkpt><trkpt lat="39.30807286962817" lon="8.546009511091222"><ele>172.0</ele><time>2026-04-28T07:24:16.872Z</time></trkpt><trkpt lat="39.30799996811927" lon="8.546135501285242"><ele>172.0</ele><time>2026-04-28T07:24:18.872Z</time></trkpt><trkpt lat="39.30792339068911" lon="8.5462910604062"><ele>171.39999999999998</ele><time>2026-04-28T07:24:20.872Z</time></trkpt><trkpt lat="39.30787508855305" lon="8.546408140936029"><ele>170.79999999999998</ele><time>2026-04-28T07:24:21.872Z</time></trkpt><trkpt lat="39.30782034103316" lon="8.546531839409939"><ele>170.2</ele><time>2026-04-28T07:24:22.872Z</time></trkpt><trkpt lat="39.3077644921566" lon="8.54666226103282"><ele>169.6</ele><time>2026-04-28T07:24:23.872Z</time></trkpt><trkpt lat="39.30769841747718" lon="8.546782602419231"><ele>169.0</ele><time>2026-04-28T07:24:24.872Z</time></trkpt><trkpt lat="39.30764326055902" lon="8.546901227125323"><ele>169.0</ele><time>2026-04-28T07:24:25.872Z</time></trkpt><trkpt lat="39.30758502561277" lon="8.547024637910942"><ele>169.0</ele><time>2026-04-28T07:24:26.872Z</time></trkpt><trkpt lat="39.30752260965355" lon="8.547151473244217"><ele>169.0</ele><time>2026-04-28T07:24:27.872Z</time></trkpt><trkpt lat="39.307464669875245" lon="8.54727086230386"><ele>169.0</ele><time>2026-04-28T07:24:28.872Z</time></trkpt><trkpt lat="39.307395590296004" lon="8.547406995873505"><ele>168.39999999999998</ele><time>2026-04-28T07:24:29.872Z</time></trkpt><trkpt lat="39.30733218070266" lon="8.547532502574969"><ele>167.8</ele><time>2026-04-28T07:24:30.872Z</time></trkpt><trkpt lat="39.307275196656406" lon="8.547647674405965"><ele>167.2</ele><time>2026-04-28T07:24:31.872Z</time></trkpt><trkpt lat="39.30722599983215" lon="8.547757294149179"><ele>166.60000000000002</ele><time>2026-04-28T07:24:32.872Z</time></trkpt><trkpt lat="39.30718614253889" lon="8.547864379831953"><ele>166.0</ele><time>2026-04-28T07:24:33.872Z</time></trkpt><trkpt lat="39.30714857036222" lon="8.547953510390643"><ele>165.83333333333334</ele><time>2026-04-28T07:24:34.872Z</time></trkpt><trkpt lat="39.30711162930161" lon="8.548039019560878"><ele>165.66666666666669</ele><time>2026-04-28T07:24:35.872Z</time></trkpt><trkpt lat="39.30705803359781" lon="8.548110434248722"><ele>165.5</ele><time>2026-04-28T07:24:36.872Z</time></trkpt><trkpt lat="39.30699695145364" lon="8.548236109597449"><ele>165.33333333333334</ele><time>2026-04-28T07:24:38.872Z</time></trkpt><trkpt lat="39.30695471702751" lon="8.548332916327771"><ele>165.16666666666666</ele><time>2026-04-28T07:24:40.872Z</time></trkpt><trkpt lat="39.306937509111414" lon="8.548412554344756"><ele>165.0</ele><time>2026-04-28T07:24:41.872Z</time></trkpt><trkpt lat="39.306879750785264" lon="8.54845761392698"><ele>165.0</ele><time>2026-04-28T07:24:43.872Z</time></trkpt><trkpt lat="39.30677347856139" lon="8.54855482579649"><ele>165.0</ele><time>2026-04-28T07:24:44.872Z</time></trkpt><trkpt lat="39.306777053069105" lon="8.548707286359816"><ele>165.0</ele><time>2026-04-28T07:24:45.872Z</time></trkpt><trkpt lat="39.306812576186076" lon="8.548796787328657"><ele>165.0</ele><time>2026-04-28T07:24:46.872Z</time></trkpt><trkpt lat="39.30688327988261" lon="8.548851202790782"><ele>165.0</ele><time>2026-04-28T07:24:47.872Z</time></trkpt><trkpt lat="39.306955820421415" lon="8.548806437258207"><ele>165.0</ele><time>2026-04-28T07:24:48.872Z</time></trkpt><trkpt lat="39.307054088133654" lon="8.548759762952693"><ele>165.0</ele><time>2026-04-28T07:24:50.872Z</time></trkpt><trkpt lat="39.307138552483416" lon="8.548668006252129"><ele>165.0</ele><time>2026-04-28T07:24:52.872Z</time></trkpt><trkpt lat="39.30720635692252" lon="8.54867336373603"><ele>165.0</ele><time>2026-04-28T07:24:54.872Z</time></trkpt><trkpt lat="39.307300441986605" lon="8.54877329267218"><ele>165.0</ele><time>2026-04-28T07:24:56.872Z</time></trkpt><trkpt lat="39.307350663327185" lon="8.548857461199466"><ele>165.33333333333334</ele><time>2026-04-28T07:24:57.872Z</time></trkpt><trkpt lat="39.30740550187633" lon="8.548934270874664"><ele>165.66666666666666</ele><time>2026-04-28T07:24:58.872Z</time></trkpt><trkpt lat="39.307461209664524" lon="8.549016018872845"><ele>166.0</ele><time>2026-04-28T07:24:59.872Z</time></trkpt><trkpt lat="39.30750238524134" lon="8.549085381120992"><ele>166.33333333333331</ele><time>2026-04-28T07:25:00.872Z</time></trkpt><trkpt lat="39.307554905187686" lon="8.549156025852012"><ele>166.66666666666666</ele><time>2026-04-28T07:25:01.872Z</time></trkpt><trkpt lat="39.307603450423365" lon="8.54922623469302"><ele>167.0</ele><time>2026-04-28T07:25:02.872Z</time></trkpt><trkpt lat="39.30765822810616" lon="8.549308712841755"><ele>167.0</ele><time>2026-04-28T07:25:03.872Z</time></trkpt><trkpt lat="39.30771841289176" lon="8.549391918771994"><ele>167.0</ele><time>2026-04-28T07:25:04.872Z</time></trkpt><trkpt lat="39.3077427109351" lon="8.549517593396248"><ele>167.0</ele><time>2026-04-28T07:25:05.872Z</time></trkpt><trkpt lat="39.3078021796479" lon="8.54963099481623"><ele>167.0</ele><time>2026-04-28T07:25:06.872Z</time></trkpt><trkpt lat="39.30783808400776" lon="8.549699856244558"><ele>167.0</ele><time>2026-04-28T07:25:07.872Z</time></trkpt><trkpt lat="39.30803540579296" lon="8.550067461047073"><ele>167.0</ele><time>2026-04-28T07:25:08.872Z</time></trkpt><trkpt lat="39.308105981175224" lon="8.550195227200879"><ele>167.0</ele><time>2026-04-28T07:25:09.872Z</time></trkpt><trkpt lat="39.30817260821266" lon="8.550323812316432"><ele>167.0</ele><time>2026-04-28T07:25:10.872Z</time></trkpt><trkpt lat="39.30824074890965" lon="8.55044902112718"><ele>167.0</ele><time>2026-04-28T07:25:11.872Z</time></trkpt><trkpt lat="39.308305695494916" lon="8.550565490842041"><ele>166.8</ele><time>2026-04-28T07:25:12.872Z</time></trkpt><trkpt lat="39.308353497839015" lon="8.550658212641126"><ele>166.6</ele><time>2026-04-28T07:25:13.872Z</time></trkpt><trkpt lat="39.30841178906267" lon="8.550750709817457"><ele>166.4</ele><time>2026-04-28T07:25:15.872Z</time></trkpt><trkpt lat="39.30836469967797" lon="8.550667383017334"><ele>166.20000000000002</ele><time>2026-04-28T07:25:19.872Z</time></trkpt><trkpt lat="39.308346035557136" lon="8.550512828235647"><ele>166.0</ele><time>2026-04-28T07:26:18.871Z</time></trkpt><trkpt lat="39.30829271683061" lon="8.550443757650047"><ele>166.20000000000002</ele><time>2026-04-28T07:26:19.871Z</time></trkpt><trkpt lat="39.30823471058245" lon="8.550353722710732"><ele>166.4</ele><time>2026-04-28T07:26:20.871Z</time></trkpt><trkpt lat="39.3081781127896" lon="8.550252486835978"><ele>166.6</ele><time>2026-04-28T07:26:21.871Z</time></trkpt><trkpt lat="39.30811550124041" lon="8.550136979953216"><ele>166.8</ele><time>2026-04-28T07:26:22.871Z</time></trkpt><trkpt lat="39.30804632614068" lon="8.550013510076537"><ele>167.0</ele><time>2026-04-28T07:26:23.871Z</time></trkpt><trkpt lat="39.30797284236932" lon="8.549880287758125"><ele>167.0</ele><time>2026-04-28T07:26:24.871Z</time></trkpt><trkpt lat="39.307898991474055" lon="8.549746212713497"><ele>167.0</ele><time>2026-04-28T07:26:25.871Z</time></trkpt><trkpt lat="39.307828946104344" lon="8.549615159252713"><ele>167.0</ele><time>2026-04-28T07:26:26.871Z</time></trkpt><trkpt lat="39.30775452995022" lon="8.549485882009318"><ele>167.0</ele><time>2026-04-28T07:26:27.871Z</time></trkpt><trkpt lat="39.30768706808519" lon="8.549368428399456"><ele>167.0</ele><time>2026-04-28T07:26:28.871Z</time></trkpt><trkpt lat="39.307617662847136" lon="8.549249512586519"><ele>167.0</ele><time>2026-04-28T07:26:29.871Z</time></trkpt><trkpt lat="39.30754809915004" lon="8.5491328639004"><ele>167.0</ele><time>2026-04-28T07:26:30.871Z</time></trkpt><trkpt lat="39.30749083469289" lon="8.549005732537722"><ele>167.0</ele><time>2026-04-28T07:26:31.871Z</time></trkpt><trkpt lat="39.30743323405566" lon="8.548913479386547"><ele>167.0</ele><time>2026-04-28T07:26:32.871Z</time></trkpt><trkpt lat="39.307371298450896" lon="8.548833932000036"><ele>167.0</ele><time>2026-04-28T07:26:33.871Z</time></trkpt><trkpt lat="39.307310040026245" lon="8.548759041312998"><ele>167.0</ele><time>2026-04-28T07:26:34.871Z</time></trkpt><trkpt lat="39.307257920605615" lon="8.548694691436378"><ele>167.0</ele><time>2026-04-28T07:26:35.871Z</time></trkpt><trkpt lat="39.3071639110085" lon="8.548606201298673"><ele>167.0</ele><time>2026-04-28T07:26:37.871Z</time></trkpt><trkpt lat="39.3070694346469" lon="8.548553247508494"><ele>167.0</ele><time>2026-04-28T07:26:39.871Z</time></trkpt><trkpt lat="39.30696238992293" lon="8.548489485089418"><ele>166.6</ele><time>2026-04-28T07:26:41.871Z</time></trkpt><trkpt lat="39.30683739105355" lon="8.548523038227591"><ele>166.2</ele><time>2026-04-28T07:26:43.871Z</time></trkpt><trkpt lat="39.30676679599257" lon="8.548623761230493"><ele>165.8</ele><time>2026-04-28T07:26:45.871Z</time></trkpt><trkpt lat="39.30675112988835" lon="8.548707371069312"><ele>165.4</ele><time>2026-04-28T07:26:46.871Z</time></trkpt><trkpt lat="39.306756815542904" lon="8.548811663857613"><ele>165.0</ele><time>2026-04-28T07:26:47.871Z</time></trkpt><trkpt lat="39.306702787562905" lon="8.5489204708254"><ele>165.0</ele><time>2026-04-28T07:26:48.871Z</time></trkpt><trkpt lat="39.30666148712991" lon="8.549031573919958"><ele>165.0</ele><time>2026-04-28T07:26:49.871Z</time></trkpt><trkpt lat="39.30661297526434" lon="8.549145642385744"><ele>165.0</ele><time>2026-04-28T07:26:50.871Z</time></trkpt><trkpt lat="39.30656436555987" lon="8.549274284496596"><ele>165.0</ele><time>2026-04-28T07:26:51.871Z</time></trkpt><trkpt lat="39.30651572876435" lon="8.549410362872067"><ele>165.0</ele><time>2026-04-28T07:26:52.871Z</time></trkpt><trkpt lat="39.30646734524696" lon="8.549552429725843"><ele>164.75</ele><time>2026-04-28T07:26:53.871Z</time></trkpt><trkpt lat="39.30642168580157" lon="8.549709526186405"><ele>164.5</ele><time>2026-04-28T07:26:54.871Z</time></trkpt><trkpt lat="39.30637940996359" lon="8.549874904336264"><ele>164.25</ele><time>2026-04-28T07:26:55.871Z</time></trkpt><trkpt lat="39.3063342500796" lon="8.550054041089536"><ele>164.0</ele><time>2026-04-28T07:26:56.871Z</time></trkpt><trkpt lat="39.306293035469906" lon="8.550231170673213"><ele>163.5</ele><time>2026-04-28T07:26:57.871Z</time></trkpt><trkpt lat="39.30625492948524" lon="8.550411288474514"><ele>163.0</ele><time>2026-04-28T07:26:58.871Z</time></trkpt><trkpt lat="39.30621698684138" lon="8.550592905295261"><ele>162.5</ele><time>2026-04-28T07:26:59.871Z</time></trkpt><trkpt lat="39.30617534086469" lon="8.550775451710056"><ele>162.0</ele><time>2026-04-28T07:27:00.871Z</time></trkpt><trkpt lat="39.30613680854493" lon="8.550956765658798"><ele>162.0</ele><time>2026-04-28T07:27:01.871Z</time></trkpt><trkpt lat="39.30610030457541" lon="8.551134905627775"><ele>162.0</ele><time>2026-04-28T07:27:02.871Z</time></trkpt><trkpt lat="39.3060717952978" lon="8.55129331860995"><ele>162.0</ele><time>2026-04-28T07:27:03.871Z</time></trkpt><trkpt lat="39.30604368531433" lon="8.551451263694162"><ele>162.0</ele><time>2026-04-28T07:27:04.871Z</time></trkpt><trkpt lat="39.306020634006956" lon="8.551575428717504"><ele>162.0</ele><time>2026-04-28T07:27:05.871Z</time></trkpt><trkpt lat="39.30600769667159" lon="8.55166125419992"><ele>162.0</ele><time>2026-04-28T07:27:06.871Z</time></trkpt><trkpt lat="39.30603309249639" lon="8.551739289682024"><ele>162.0</ele><time>2026-04-28T07:27:08.871Z</time></trkpt><trkpt lat="39.30610131523087" lon="8.551816835538224"><ele>162.0</ele><time>2026-04-28T07:27:10.871Z</time></trkpt><trkpt lat="39.30617138564105" lon="8.551821720436793"><ele>162.0</ele><time>2026-04-28T07:27:11.871Z</time></trkpt><trkpt lat="39.30620043801936" lon="8.551902007016592"><ele>162.0</ele><time>2026-04-28T07:27:12.871Z</time></trkpt><trkpt lat="39.3061954284041" lon="8.552003870541078"><ele>162.0</ele><time>2026-04-28T07:27:14.871Z</time></trkpt><trkpt lat="39.30614774622168" lon="8.552092492534793"><ele>162.0</ele><time>2026-04-28T07:27:16.871Z</time></trkpt><trkpt lat="39.306140621974194" lon="8.552198152049407"><ele>162.0</ele><time>2026-04-28T07:27:19.871Z</time></trkpt><trkpt lat="39.30611041814089" lon="8.552122227268931"><ele>162.0</ele><time>2026-04-28T07:27:23.871Z</time></trkpt><trkpt lat="39.306145643556036" lon="8.552031714008542"><ele>162.0</ele><time>2026-04-28T07:27:26.871Z</time></trkpt><trkpt lat="39.306154400601905" lon="8.551918117897275"><ele>162.0</ele><time>2026-04-28T07:29:52.869Z</time></trkpt><trkpt lat="39.306134617295896" lon="8.551788936150244"><ele>162.0</ele><time>2026-04-28T07:29:54.869Z</time></trkpt><trkpt lat="39.306104609536824" lon="8.551715506409614"><ele>162.0</ele><time>2026-04-28T07:29:55.869Z</time></trkpt><trkpt lat="39.30606038594088" lon="8.551647691522277"><ele>162.0</ele><time>2026-04-28T07:29:56.869Z</time></trkpt><trkpt lat="39.30604448885954" lon="8.551527720344124"><ele>162.0</ele><time>2026-04-28T07:29:58.869Z</time></trkpt><trkpt lat="39.306083926465774" lon="8.55144938898794"><ele>162.0</ele><time>2026-04-28T07:29:59.869Z</time></trkpt><trkpt lat="39.30610471615374" lon="8.551346846996701"><ele>162.0</ele><time>2026-04-28T07:30:00.869Z</time></trkpt><trkpt lat="39.30610824447972" lon="8.551228555400064"><ele>162.0</ele><time>2026-04-28T07:30:01.869Z</time></trkpt><trkpt lat="39.306138824289945" lon="8.551126009707321"><ele>162.0</ele><time>2026-04-28T07:30:02.869Z</time></trkpt><trkpt lat="39.30616030426668" lon="8.551009620896156"><ele>162.0</ele><time>2026-04-28T07:30:03.868Z</time></trkpt><trkpt lat="39.30618389579521" lon="8.550881692206366"><ele>162.0</ele><time>2026-04-28T07:30:04.869Z</time></trkpt><trkpt lat="39.30621027899468" lon="8.55077529228886"><ele>162.0</ele><time>2026-04-28T07:30:05.869Z</time></trkpt><trkpt lat="39.30624125199902" lon="8.550677364367639"><ele>162.0</ele><time>2026-04-28T07:30:06.868Z</time></trkpt><trkpt lat="39.3062579732529" lon="8.550561589373833"><ele>162.0</ele><time>2026-04-28T07:30:07.869Z</time></trkpt><trkpt lat="39.30628016810635" lon="8.550461713720393"><ele>162.0</ele><time>2026-04-28T07:30:08.869Z</time></trkpt><trkpt lat="39.30630142975098" lon="8.550332123543441"><ele>162.0</ele><time>2026-04-28T07:30:09.869Z</time></trkpt><trkpt lat="39.3063381613051" lon="8.550213414617495"><ele>162.0</ele><time>2026-04-28T07:30:10.868Z</time></trkpt><trkpt lat="39.30639066996137" lon="8.550063113615456"><ele>162.0</ele><time>2026-04-28T07:30:11.868Z</time></trkpt><trkpt lat="39.30644560547173" lon="8.549925492360265"><ele>162.5</ele><time>2026-04-28T07:30:12.868Z</time></trkpt><trkpt lat="39.306502357678134" lon="8.549788257083435"><ele>163.0</ele><time>2026-04-28T07:30:13.868Z</time></trkpt><trkpt lat="39.30655820292944" lon="8.549651804029835"><ele>163.5</ele><time>2026-04-28T07:30:14.868Z</time></trkpt><trkpt lat="39.3066144939309" lon="8.549507956264629"><ele>164.0</ele><time>2026-04-28T07:30:15.869Z</time></trkpt><trkpt lat="39.30667011956044" lon="8.549371274249719"><ele>164.25</ele><time>2026-04-28T07:30:16.868Z</time></trkpt><trkpt lat="39.3067213762048" lon="8.549244588529037"><ele>164.5</ele><time>2026-04-28T07:30:17.868Z</time></trkpt><trkpt lat="39.30676416782206" lon="8.54914728873479"><ele>164.75</ele><time>2026-04-28T07:30:18.868Z</time></trkpt><trkpt lat="39.30680143045635" lon="8.54903655267235"><ele>165.0</ele><time>2026-04-28T07:30:20.868Z</time></trkpt><trkpt lat="39.30694469390793" lon="8.549174548010306"><ele>165.0</ele><time>2026-04-28T07:30:24.868Z</time></trkpt><trkpt lat="39.30693426848852" lon="8.54928180703012"><ele>165.0</ele><time>2026-04-28T07:30:25.868Z</time></trkpt><trkpt lat="39.306931478281825" lon="8.549386745582275"><ele>165.0</ele><time>2026-04-28T07:30:26.868Z</time></trkpt><trkpt lat="39.30692715200595" lon="8.549495565908943"><ele>165.0</ele><time>2026-04-28T07:30:27.868Z</time></trkpt><trkpt lat="39.30691688116979" lon="8.549615033842459"><ele>165.0</ele><time>2026-04-28T07:30:28.868Z</time></trkpt><trkpt lat="39.30689167844341" lon="8.54974187330753"><ele>165.0</ele><time>2026-04-28T07:30:29.868Z</time></trkpt><trkpt lat="39.306860641598895" lon="8.549864334872858"><ele>164.8</ele><time>2026-04-28T07:30:30.868Z</time></trkpt><trkpt lat="39.30680846542147" lon="8.549986437972072"><ele>164.6</ele><time>2026-04-28T07:30:31.868Z</time></trkpt><trkpt lat="39.306747557302" lon="8.550099323893422"><ele>164.39999999999998</ele><time>2026-04-28T07:30:32.868Z</time></trkpt><trkpt lat="39.30667603499579" lon="8.550197727341109"><ele>164.2</ele><time>2026-04-28T07:30:33.868Z</time></trkpt><trkpt lat="39.30660183770011" lon="8.550287462325464"><ele>164.0</ele><time>2026-04-28T07:30:34.868Z</time></trkpt><trkpt lat="39.30651979359628" lon="8.550360135546951"><ele>164.0</ele><time>2026-04-28T07:30:35.868Z</time></trkpt><trkpt lat="39.30643082473319" lon="8.550417944220468"><ele>164.0</ele><time>2026-04-28T07:30:36.868Z</time></trkpt><trkpt lat="39.30633339046635" lon="8.550461162317816"><ele>164.0</ele><time>2026-04-28T07:30:37.868Z</time></trkpt><trkpt lat="39.306235392172475" lon="8.550478666428093"><ele>164.0</ele><time>2026-04-28T07:30:38.868Z</time></trkpt><trkpt lat="39.30612993778387" lon="8.550479892766791"><ele>164.0</ele><time>2026-04-28T07:30:39.868Z</time></trkpt><trkpt lat="39.30602160308924" lon="8.550484448630977"><ele>163.6</ele><time>2026-04-28T07:30:40.868Z</time></trkpt><trkpt lat="39.30591133550739" lon="8.550482633725583"><ele>163.2</ele><time>2026-04-28T07:30:41.868Z</time></trkpt><trkpt lat="39.30580556925271" lon="8.550457832511055"><ele>162.79999999999998</ele><time>2026-04-28T07:30:42.868Z</time></trkpt><trkpt lat="39.305702064542345" lon="8.550410191062072"><ele>162.39999999999998</ele><time>2026-04-28T07:30:43.868Z</time></trkpt><trkpt lat="39.30560204666115" lon="8.550337346941458"><ele>162.0</ele><time>2026-04-28T07:30:44.868Z</time></trkpt><trkpt lat="39.305501438540816" lon="8.55025930607032"><ele>163.0</ele><time>2026-04-28T07:30:45.868Z</time></trkpt><trkpt lat="39.305399485620725" lon="8.550173796057729"><ele>164.0</ele><time>2026-04-28T07:30:46.868Z</time></trkpt><trkpt lat="39.305300322574034" lon="8.550080132564622"><ele>165.0</ele><time>2026-04-28T07:30:47.868Z</time></trkpt><trkpt lat="39.305199967628994" lon="8.549984477603687"><ele>166.0</ele><time>2026-04-28T07:30:48.868Z</time></trkpt><trkpt lat="39.30510121218726" lon="8.549887304615694"><ele>166.0</ele><time>2026-04-28T07:30:49.868Z</time></trkpt><trkpt lat="39.30500329470292" lon="8.54978035943479"><ele>166.0</ele><time>2026-04-28T07:30:50.868Z</time></trkpt><trkpt lat="39.30491270762157" lon="8.549689169310259"><ele>166.0</ele><time>2026-04-28T07:30:51.868Z</time></trkpt><trkpt lat="39.30480533523675" lon="8.549577700384242"><ele>166.0</ele><time>2026-04-28T07:30:52.868Z</time></trkpt><trkpt lat="39.304693977230336" lon="8.549458411275278"><ele>166.5</ele><time>2026-04-28T07:30:53.868Z</time></trkpt><trkpt lat="39.304588701019384" lon="8.549337851508994"><ele>167.0</ele><time>2026-04-28T07:30:54.868Z</time></trkpt><trkpt lat="39.304495890660334" lon="8.549228519578755"><ele>167.5</ele><time>2026-04-28T07:30:55.868Z</time></trkpt><trkpt lat="39.30440665344082" lon="8.549128285340549"><ele>168.0</ele><time>2026-04-28T07:30:56.868Z</time></trkpt><trkpt lat="39.304320675654274" lon="8.549040384263641"><ele>168.0</ele><time>2026-04-28T07:30:57.868Z</time></trkpt><trkpt lat="39.30427456002695" lon="8.548933901616618"><ele>168.0</ele><time>2026-04-28T07:30:58.868Z</time></trkpt><trkpt lat="39.304208769962486" lon="8.548872573589492"><ele>168.0</ele><time>2026-04-28T07:30:59.868Z</time></trkpt><trkpt lat="39.3041018936721" lon="8.548873819407117"><ele>168.0</ele><time>2026-04-28T07:31:01.868Z</time></trkpt><trkpt lat="39.304038201670735" lon="8.548944643593078"><ele>168.0</ele><time>2026-04-28T07:31:03.868Z</time></trkpt><trkpt lat="39.30403511154565" lon="8.549033058467696"><ele>168.0</ele><time>2026-04-28T07:31:04.868Z</time></trkpt><trkpt lat="39.304024855666064" lon="8.549126643781866"><ele>168.0</ele><time>2026-04-28T07:31:05.868Z</time></trkpt><trkpt lat="39.30397907194688" lon="8.549234834968686"><ele>168.0</ele><time>2026-04-28T07:31:06.868Z</time></trkpt><trkpt lat="39.303931032961906" lon="8.549347958582612"><ele>168.0</ele><time>2026-04-28T07:31:07.868Z</time></trkpt><trkpt lat="39.30389877549514" lon="8.549463506254796"><ele>168.0</ele><time>2026-04-28T07:31:08.868Z</time></trkpt><trkpt lat="39.30386991975781" lon="8.549598353240144"><ele>168.0</ele><time>2026-04-28T07:31:09.868Z</time></trkpt><trkpt lat="39.30383342615526" lon="8.549726521899546"><ele>168.60000000000002</ele><time>2026-04-28T07:31:10.868Z</time></trkpt><trkpt lat="39.30379916694348" lon="8.549855950864282"><ele>169.20000000000002</ele><time>2026-04-28T07:31:11.868Z</time></trkpt><trkpt lat="39.30377094093981" lon="8.549971600575258"><ele>169.8</ele><time>2026-04-28T07:31:12.868Z</time></trkpt><trkpt lat="39.3037404430184" lon="8.550079798158942"><ele>170.4</ele><time>2026-04-28T07:31:13.868Z</time></trkpt><trkpt lat="39.30373415504343" lon="8.5502112931991"><ele>171.0</ele><time>2026-04-28T07:31:14.868Z</time></trkpt><trkpt lat="39.30370185091897" lon="8.550324723655283"><ele>170.20000000000002</ele><time>2026-04-28T07:31:15.868Z</time></trkpt><trkpt lat="39.30366983786056" lon="8.550439170053513"><ele>169.4</ele><time>2026-04-28T07:31:16.868Z</time></trkpt><trkpt lat="39.30364068907348" lon="8.550560437981401"><ele>168.6</ele><time>2026-04-28T07:31:17.868Z</time></trkpt><trkpt lat="39.303614938828076" lon="8.550686548545425"><ele>167.8</ele><time>2026-04-28T07:31:18.868Z</time></trkpt><trkpt lat="39.303585312851084" lon="8.550793849558612"><ele>167.0</ele><time>2026-04-28T07:31:19.868Z</time></trkpt><trkpt lat="39.30356169611851" lon="8.550894994541181"><ele>167.0</ele><time>2026-04-28T07:31:20.868Z</time></trkpt><trkpt lat="39.30353517917718" lon="8.550997413310112"><ele>167.0</ele><time>2026-04-28T07:31:21.868Z</time></trkpt><trkpt lat="39.303513825984155" lon="8.551082988090004"><ele>167.0</ele><time>2026-04-28T07:31:22.868Z</time></trkpt><trkpt lat="39.303490210649414" lon="8.551160346133129"><ele>167.0</ele><time>2026-04-28T07:31:23.868Z</time></trkpt><trkpt lat="39.30346974579411" lon="8.551240136445895"><ele>167.0</ele><time>2026-04-28T07:31:24.868Z</time></trkpt><trkpt lat="39.30343146843543" lon="8.551379224431402"><ele>167.0</ele><time>2026-04-28T07:31:26.868Z</time></trkpt><trkpt lat="39.30338076438464" lon="8.551451315413539"><ele>166.8</ele><time>2026-04-28T07:31:27.868Z</time></trkpt><trkpt lat="39.30334412064795" lon="8.551549325717104"><ele>166.6</ele><time>2026-04-28T07:31:28.868Z</time></trkpt><trkpt lat="39.30331186604439" lon="8.551675945511251"><ele>166.4</ele><time>2026-04-28T07:31:29.868Z</time></trkpt><trkpt lat="39.30328068635467" lon="8.551811605922847"><ele>166.20000000000002</ele><time>2026-04-28T07:31:30.868Z</time></trkpt><trkpt lat="39.30324630568975" lon="8.551940386802515"><ele>166.0</ele><time>2026-04-28T07:31:31.868Z</time></trkpt><trkpt lat="39.30321612798999" lon="8.552076157398455"><ele>166.0</ele><time>2026-04-28T07:31:32.868Z</time></trkpt><trkpt lat="39.303177539260616" lon="8.552210548235971"><ele>166.0</ele><time>2026-04-28T07:31:33.868Z</time></trkpt><trkpt lat="39.303142052994765" lon="8.552338697363334"><ele>166.0</ele><time>2026-04-28T07:31:34.868Z</time></trkpt><trkpt lat="39.303101217109514" lon="8.552452357730694"><ele>166.0</ele><time>2026-04-28T07:31:35.868Z</time></trkpt><trkpt lat="39.303065596921684" lon="8.552554952823888"><ele>166.0</ele><time>2026-04-28T07:31:36.868Z</time></trkpt><trkpt lat="39.30302552890036" lon="8.552647472669507"><ele>165.66666666666669</ele><time>2026-04-28T07:31:37.868Z</time></trkpt><trkpt lat="39.302978698543505" lon="8.55274250346705"><ele>165.33333333333334</ele><time>2026-04-28T07:31:38.868Z</time></trkpt><trkpt lat="39.30295303391565" lon="8.552846822900234"><ele>165.0</ele><time>2026-04-28T07:31:39.868Z</time></trkpt><trkpt lat="39.30293837441066" lon="8.552958710933284"><ele>164.66666666666666</ele><time>2026-04-28T07:31:40.868Z</time></trkpt><trkpt lat="39.30292876004254" lon="8.553075326351184"><ele>164.33333333333331</ele><time>2026-04-28T07:31:41.868Z</time></trkpt><trkpt lat="39.30290928461366" lon="8.553199491057125"><ele>164.0</ele><time>2026-04-28T07:31:42.868Z</time></trkpt><trkpt lat="39.3028811016737" lon="8.553339789922429"><ele>164.0</ele><time>2026-04-28T07:31:43.868Z</time></trkpt><trkpt lat="39.30283590532934" lon="8.55346595323809"><ele>164.0</ele><time>2026-04-28T07:31:44.868Z</time></trkpt><trkpt lat="39.302809675442255" lon="8.553622692244206"><ele>164.0</ele><time>2026-04-28T07:31:45.868Z</time></trkpt><trkpt lat="39.30277196104734" lon="8.553770700234347"><ele>164.0</ele><time>2026-04-28T07:31:46.868Z</time></trkpt><trkpt lat="39.30273387380615" lon="8.553894609541109"><ele>163.5</ele><time>2026-04-28T07:31:47.868Z</time></trkpt><trkpt lat="39.30270177948271" lon="8.554008889681036"><ele>163.0</ele><time>2026-04-28T07:31:48.868Z</time></trkpt><trkpt lat="39.30267006751182" lon="8.554127148388472"><ele>162.5</ele><time>2026-04-28T07:31:49.868Z</time></trkpt><trkpt lat="39.30263796996521" lon="8.554237265498237"><ele>162.0</ele><time>2026-04-28T07:31:50.868Z</time></trkpt><trkpt lat="39.302613518525284" lon="8.554332339849681"><ele>161.5</ele><time>2026-04-28T07:31:51.868Z</time></trkpt><trkpt lat="39.30258226956557" lon="8.554409707592882"><ele>161.0</ele><time>2026-04-28T07:31:52.868Z</time></trkpt><trkpt lat="39.30253352917026" lon="8.554540928013"><ele>161.0</ele><time>2026-04-28T07:31:54.868Z</time></trkpt><trkpt lat="39.302463609425594" lon="8.554659971788062"><ele>161.0</ele><time>2026-04-28T07:31:56.868Z</time></trkpt><trkpt lat="39.30242522349681" lon="8.554735607832155"><ele>161.0</ele><time>2026-04-28T07:31:57.868Z</time></trkpt><trkpt lat="39.302406369369265" lon="8.554833068831998"><ele>161.0</ele><time>2026-04-28T07:31:58.868Z</time></trkpt><trkpt lat="39.30241086563258" lon="8.554941669645967"><ele>161.0</ele><time>2026-04-28T07:31:59.868Z</time></trkpt><trkpt lat="39.3023950883739" lon="8.55503909669458"><ele>161.0</ele><time>2026-04-28T07:32:00.868Z</time></trkpt><trkpt lat="39.30236662290799" lon="8.555138575491336"><ele>161.0</ele><time>2026-04-28T07:32:01.868Z</time></trkpt><trkpt lat="39.30234092667096" lon="8.555227698400987"><ele>161.0</ele><time>2026-04-28T07:32:02.868Z</time></trkpt><trkpt lat="39.302316308304896" lon="8.555331954245638"><ele>161.0</ele><time>2026-04-28T07:32:03.868Z</time></trkpt><trkpt lat="39.30228993083487" lon="8.555427677715372"><ele>161.0</ele><time>2026-04-28T07:32:04.868Z</time></trkpt><trkpt lat="39.3022621630297" lon="8.555532550578096"><ele>161.0</ele><time>2026-04-28T07:32:05.868Z</time></trkpt><trkpt lat="39.30223081285128" lon="8.555649782033312"><ele>161.0</ele><time>2026-04-28T07:32:06.868Z</time></trkpt><trkpt lat="39.30218818159686" lon="8.555766835335485"><ele>161.25</ele><time>2026-04-28T07:32:07.868Z</time></trkpt><trkpt lat="39.30215068127849" lon="8.55589716607286"><ele>161.5</ele><time>2026-04-28T07:32:08.868Z</time></trkpt><trkpt lat="39.30211276842943" lon="8.556035062367522"><ele>161.75</ele><time>2026-04-28T07:32:09.867Z</time></trkpt><trkpt lat="39.30207546053798" lon="8.556172501348911"><ele>162.0</ele><time>2026-04-28T07:32:10.867Z</time></trkpt><trkpt lat="39.302038290183944" lon="8.556317294508613"><ele>161.5</ele><time>2026-04-28T07:32:11.867Z</time></trkpt><trkpt lat="39.30200209287636" lon="8.556455111848182"><ele>161.0</ele><time>2026-04-28T07:32:12.867Z</time></trkpt><trkpt lat="39.301960115967056" lon="8.556603046427254"><ele>160.5</ele><time>2026-04-28T07:32:13.867Z</time></trkpt><trkpt lat="39.301915477856184" lon="8.5567569018229"><ele>160.0</ele><time>2026-04-28T07:32:14.867Z</time></trkpt><trkpt lat="39.30187216403103" lon="8.55690715379568"><ele>159.25</ele><time>2026-04-28T07:32:15.868Z</time></trkpt><trkpt lat="39.301834421344" lon="8.557060166834173"><ele>158.5</ele><time>2026-04-28T07:32:16.868Z</time></trkpt><trkpt lat="39.30179387782727" lon="8.55721889836195"><ele>157.75</ele><time>2026-04-28T07:32:17.868Z</time></trkpt><trkpt lat="39.30175474134603" lon="8.5573569039485"><ele>157.0</ele><time>2026-04-28T07:32:18.867Z</time></trkpt><trkpt lat="39.301714307150725" lon="8.55748551332878"><ele>157.0</ele><time>2026-04-28T07:32:19.867Z</time></trkpt><trkpt lat="39.30167631931185" lon="8.557627940435028"><ele>157.0</ele><time>2026-04-28T07:32:20.867Z</time></trkpt><trkpt lat="39.30164576393115" lon="8.557749558057578"><ele>157.0</ele><time>2026-04-28T07:32:21.867Z</time></trkpt><trkpt lat="39.301618023846835" lon="8.557850636631137"><ele>157.0</ele><time>2026-04-28T07:32:22.867Z</time></trkpt><trkpt lat="39.301598056660815" lon="8.557939860795841"><ele>157.0</ele><time>2026-04-28T07:32:23.867Z</time></trkpt><trkpt lat="39.30155570965279" lon="8.558077115468006"><ele>156.79999999999998</ele><time>2026-04-28T07:32:25.867Z</time></trkpt><trkpt lat="39.301530964110036" lon="8.558178003232067"><ele>156.6</ele><time>2026-04-28T07:32:27.867Z</time></trkpt><trkpt lat="39.30150384984943" lon="8.558283721291009"><ele>156.39999999999998</ele><time>2026-04-28T07:32:29.867Z</time></trkpt><trkpt lat="39.30147407725529" lon="8.558427372217421"><ele>156.2</ele><time>2026-04-28T07:32:31.867Z</time></trkpt><trkpt lat="39.30145236972868" lon="8.558531161573873"><ele>156.0</ele><time>2026-04-28T07:32:32.867Z</time></trkpt><trkpt lat="39.30142417593873" lon="8.558645415817296"><ele>155.8</ele><time>2026-04-28T07:32:33.867Z</time></trkpt><trkpt lat="39.301379970259546" lon="8.55876306540795"><ele>155.6</ele><time>2026-04-28T07:32:34.867Z</time></trkpt><trkpt lat="39.30135152060947" lon="8.558886093124823"><ele>155.4</ele><time>2026-04-28T07:32:35.867Z</time></trkpt><trkpt lat="39.301308509093516" lon="8.559004427071768"><ele>155.2</ele><time>2026-04-28T07:32:36.867Z</time></trkpt><trkpt lat="39.30127975746824" lon="8.559152708361305"><ele>155.0</ele><time>2026-04-28T07:32:37.867Z</time></trkpt><trkpt lat="39.30122566522334" lon="8.55928016344476"><ele>155.0</ele><time>2026-04-28T07:32:38.867Z</time></trkpt><trkpt lat="39.3011962788252" lon="8.559422589377146"><ele>155.0</ele><time>2026-04-28T07:32:39.867Z</time></trkpt><trkpt lat="39.30116279686575" lon="8.559548830463157"><ele>155.0</ele><time>2026-04-28T07:32:40.867Z</time></trkpt><trkpt lat="39.30112785048147" lon="8.559673021130454"><ele>155.0</ele><time>2026-04-28T07:32:41.867Z</time></trkpt><trkpt lat="39.30108992456569" lon="8.559799618119929"><ele>155.0</ele><time>2026-04-28T07:32:42.867Z</time></trkpt><trkpt lat="39.30105365051678" lon="8.55992590494996"><ele>154.6</ele><time>2026-04-28T07:32:43.867Z</time></trkpt><trkpt lat="39.30101974341058" lon="8.56005926759387"><ele>154.2</ele><time>2026-04-28T07:32:44.867Z</time></trkpt><trkpt lat="39.300991860299106" lon="8.560179214644617"><ele>153.8</ele><time>2026-04-28T07:32:45.867Z</time></trkpt><trkpt lat="39.30096107532482" lon="8.56028737955431"><ele>153.4</ele><time>2026-04-28T07:32:46.867Z</time></trkpt><trkpt lat="39.30092825502049" lon="8.56038578660385"><ele>153.0</ele><time>2026-04-28T07:32:47.867Z</time></trkpt><trkpt lat="39.30089908276365" lon="8.560493078684729"><ele>152.83333333333334</ele><time>2026-04-28T07:32:48.867Z</time></trkpt><trkpt lat="39.30086141483287" lon="8.560605956833987"><ele>152.66666666666666</ele><time>2026-04-28T07:32:49.867Z</time></trkpt><trkpt lat="39.30082603156714" lon="8.560723627908464"><ele>152.5</ele><time>2026-04-28T07:32:50.867Z</time></trkpt><trkpt lat="39.30079734053807" lon="8.560836798440421"><ele>152.33333333333331</ele><time>2026-04-28T07:32:51.867Z</time></trkpt><trkpt lat="39.300773482748" lon="8.560930632311807"><ele>152.16666666666666</ele><time>2026-04-28T07:32:52.867Z</time></trkpt><trkpt lat="39.30074623904862" lon="8.5610183437966"><ele>152.0</ele><time>2026-04-28T07:32:53.867Z</time></trkpt><trkpt lat="39.300708977475324" lon="8.561166216267935"><ele>152.0</ele><time>2026-04-28T07:32:55.867Z</time></trkpt><trkpt lat="39.30066609672311" lon="8.561324318858674"><ele>152.0</ele><time>2026-04-28T07:32:57.867Z</time></trkpt><trkpt lat="39.30063965787918" lon="8.561421039339622"><ele>152.0</ele><time>2026-04-28T07:32:58.867Z</time></trkpt><trkpt lat="39.30061075429634" lon="8.561523972045503"><ele>152.0</ele><time>2026-04-28T07:32:59.867Z</time></trkpt><trkpt lat="39.300586142907235" lon="8.56164469732039"><ele>152.0</ele><time>2026-04-28T07:33:00.867Z</time></trkpt><trkpt lat="39.300549340602565" lon="8.56176446844977"><ele>152.0</ele><time>2026-04-28T07:33:01.867Z</time></trkpt><trkpt lat="39.300513800232935" lon="8.561894695348357"><ele>152.0</ele><time>2026-04-28T07:33:02.867Z</time></trkpt><trkpt lat="39.30047926595479" lon="8.562025781343683"><ele>152.0</ele><time>2026-04-28T07:33:03.867Z</time></trkpt><trkpt lat="39.30044493449891" lon="8.562164662540393"><ele>152.0</ele><time>2026-04-28T07:33:04.867Z</time></trkpt><trkpt lat="39.30041371517332" lon="8.562303261555105"><ele>152.0</ele><time>2026-04-28T07:33:05.867Z</time></trkpt><trkpt lat="39.30038049653566" lon="8.562426520711576"><ele>151.6</ele><time>2026-04-28T07:33:06.867Z</time></trkpt><trkpt lat="39.30034437129992" lon="8.562546934548823"><ele>151.2</ele><time>2026-04-28T07:33:07.867Z</time></trkpt><trkpt lat="39.300309160925195" lon="8.562677043459441"><ele>150.8</ele><time>2026-04-28T07:33:08.867Z</time></trkpt><trkpt lat="39.30027249127522" lon="8.56280802204882"><ele>150.4</ele><time>2026-04-28T07:33:09.867Z</time></trkpt><trkpt lat="39.300237191571924" lon="8.562937455927269"><ele>150.0</ele><time>2026-04-28T07:33:10.867Z</time></trkpt><trkpt lat="39.30019536241702" lon="8.563076147398387"><ele>149.5</ele><time>2026-04-28T07:33:11.867Z</time></trkpt><trkpt lat="39.30016678116314" lon="8.56319893154459"><ele>149.0</ele><time>2026-04-28T07:33:12.867Z</time></trkpt><trkpt lat="39.30014034884499" lon="8.563291653117048"><ele>148.5</ele><time>2026-04-28T07:33:13.867Z</time></trkpt><trkpt lat="39.3001220105413" lon="8.56338197542847"><ele>148.0</ele><time>2026-04-28T07:33:14.867Z</time></trkpt><trkpt lat="39.300098286470714" lon="8.56348720790011"><ele>147.5</ele><time>2026-04-28T07:33:15.867Z</time></trkpt><trkpt lat="39.300066717666404" lon="8.563601324463354"><ele>147.0</ele><time>2026-04-28T07:33:16.867Z</time></trkpt><trkpt lat="39.300025583505516" lon="8.56372958030505"><ele>146.66666666666666</ele><time>2026-04-28T07:33:17.867Z</time></trkpt><trkpt lat="39.29998404387552" lon="8.563853785565122"><ele>146.33333333333334</ele><time>2026-04-28T07:33:18.867Z</time></trkpt><trkpt lat="39.299954501665106" lon="8.563966052825563"><ele>146.0</ele><time>2026-04-28T07:33:19.867Z</time></trkpt><trkpt lat="39.29992567424439" lon="8.564070086259102"><ele>145.66666666666669</ele><time>2026-04-28T07:33:20.867Z</time></trkpt><trkpt lat="39.299905080422434" lon="8.564174134854"><ele>145.33333333333334</ele><time>2026-04-28T07:33:21.867Z</time></trkpt><trkpt lat="39.29987821900919" lon="8.564264389746803"><ele>145.0</ele><time>2026-04-28T07:33:22.867Z</time></trkpt><trkpt lat="39.29984931155426" lon="8.56435417335163"><ele>145.0</ele><time>2026-04-28T07:33:23.867Z</time></trkpt><trkpt lat="39.29982430102949" lon="8.564444443748632"><ele>145.0</ele><time>2026-04-28T07:33:24.867Z</time></trkpt><trkpt lat="39.2997948828088" lon="8.564519455976729"><ele>145.0</ele><time>2026-04-28T07:33:25.867Z</time></trkpt><trkpt lat="39.299760040741496" lon="8.564608334429602"><ele>145.0</ele><time>2026-04-28T07:33:26.867Z</time></trkpt><trkpt lat="39.29973834199303" lon="8.564696002063329"><ele>145.0</ele><time>2026-04-28T07:33:27.867Z</time></trkpt><trkpt lat="39.29971278550935" lon="8.564788377295729"><ele>145.0</ele><time>2026-04-28T07:33:28.867Z</time></trkpt><trkpt lat="39.29974306874873" lon="8.564895998795746"><ele>144.8</ele><time>2026-04-28T07:33:29.867Z</time></trkpt><trkpt lat="39.29975469675915" lon="8.565015512324305"><ele>144.6</ele><time>2026-04-28T07:33:30.867Z</time></trkpt><trkpt lat="39.299750875122626" lon="8.565148810443308"><ele>144.4</ele><time>2026-04-28T07:33:31.867Z</time></trkpt><trkpt lat="39.29973296724491" lon="8.565289280069015"><ele>144.2</ele><time>2026-04-28T07:33:32.867Z</time></trkpt><trkpt lat="39.29970463132543" lon="8.565434703802802"><ele>144.0</ele><time>2026-04-28T07:33:33.867Z</time></trkpt><trkpt lat="39.299675062221986" lon="8.565595078802309"><ele>144.0</ele><time>2026-04-28T07:33:34.867Z</time></trkpt><trkpt lat="39.2996488896526" lon="8.565741934705924"><ele>144.0</ele><time>2026-04-28T07:33:35.867Z</time></trkpt><trkpt lat="39.299626146796776" lon="8.565873073242193"><ele>144.0</ele><time>2026-04-28T07:33:36.867Z</time></trkpt><trkpt lat="39.299606463505995" lon="8.56599826903306"><ele>144.0</ele><time>2026-04-28T07:33:37.867Z</time></trkpt><trkpt lat="39.299584887258504" lon="8.566088907243518"><ele>144.0</ele><time>2026-04-28T07:33:38.867Z</time></trkpt><trkpt lat="39.29958325215204" lon="8.566199798976504"><ele>143.8</ele><time>2026-04-28T07:33:40.867Z</time></trkpt><trkpt lat="39.2995796843246" lon="8.566292504566958"><ele>143.60000000000002</ele><time>2026-04-28T07:33:43.867Z</time></trkpt><trkpt lat="39.299654650195855" lon="8.566332369536472"><ele>143.4</ele><time>2026-04-28T07:33:45.867Z</time></trkpt><trkpt lat="39.29973225475126" lon="8.566345573780998"><ele>143.20000000000002</ele><time>2026-04-28T07:33:47.867Z</time></trkpt><trkpt lat="39.299839946255574" lon="8.566364052175519"><ele>143.0</ele><time>2026-04-28T07:33:49.867Z</time></trkpt><trkpt lat="39.29994354501732" lon="8.566472840303438"><ele>142.6</ele><time>2026-04-28T07:33:51.867Z</time></trkpt><trkpt lat="39.300016282065286" lon="8.56655577748732"><ele>142.20000000000002</ele><time>2026-04-28T07:33:52.867Z</time></trkpt><trkpt lat="39.300085338557096" lon="8.566665104590498"><ele>141.8</ele><time>2026-04-28T07:33:53.867Z</time></trkpt><trkpt lat="39.30012075964149" lon="8.566769786149829"><ele>141.4</ele><time>2026-04-28T07:33:54.867Z</time></trkpt><trkpt lat="39.30015869791889" lon="8.566890966744404"><ele>141.0</ele><time>2026-04-28T07:33:55.867Z</time></trkpt><trkpt lat="39.30018363570702" lon="8.567017904058837"><ele>141.25</ele><time>2026-04-28T07:33:56.867Z</time></trkpt><trkpt lat="39.300198059066126" lon="8.567143128945009"><ele>141.5</ele><time>2026-04-28T07:33:57.867Z</time></trkpt><trkpt lat="39.30020836487469" lon="8.567285451555591"><ele>141.75</ele><time>2026-04-28T07:33:58.867Z</time></trkpt><trkpt lat="39.30023049075977" lon="8.567478870317004"><ele>142.0</ele><time>2026-04-28T07:33:59.867Z</time></trkpt><trkpt lat="39.30025352246368" lon="8.567664624061234"><ele>142.0</ele><time>2026-04-28T07:34:00.867Z</time></trkpt><trkpt lat="39.300278063019505" lon="8.567861335867287"><ele>142.0</ele><time>2026-04-28T07:34:01.867Z</time></trkpt><trkpt lat="39.30029996510181" lon="8.568029385969929"><ele>142.0</ele><time>2026-04-28T07:34:02.867Z</time></trkpt><trkpt lat="39.30023873545852" lon="8.567883881064557"><ele>142.0</ele><time>2026-04-28T07:34:03.867Z</time></trkpt><trkpt lat="39.300248080627966" lon="8.568039399149365"><ele>142.0</ele><time>2026-04-28T07:34:04.867Z</time></trkpt><trkpt lat="39.30025461043467" lon="8.568193743999142"><ele>142.0</ele><time>2026-04-28T07:34:05.867Z</time></trkpt><trkpt lat="39.30026186463237" lon="8.568347056147237"><ele>142.0</ele><time>2026-04-28T07:34:06.867Z</time></trkpt><trkpt lat="39.300266159659984" lon="8.568491273096141"><ele>142.0</ele><time>2026-04-28T07:34:07.867Z</time></trkpt><trkpt lat="39.300256150738385" lon="8.568632481378677"><ele>141.79999999999998</ele><time>2026-04-28T07:34:08.867Z</time></trkpt><trkpt lat="39.30020249058462" lon="8.568753584227899"><ele>141.6</ele><time>2026-04-28T07:34:09.867Z</time></trkpt><trkpt lat="39.30015066580954" lon="8.568862843614308"><ele>141.39999999999998</ele><time>2026-04-28T07:34:10.867Z</time></trkpt><trkpt lat="39.30008974210499" lon="8.568958296696954"><ele>141.2</ele><time>2026-04-28T07:34:11.867Z</time></trkpt><trkpt lat="39.300015290350984" lon="8.569022056629182"><ele>141.0</ele><time>2026-04-28T07:34:12.867Z</time></trkpt><trkpt lat="39.29993245011947" lon="8.569080571087236"><ele>141.0</ele><time>2026-04-28T07:34:13.867Z</time></trkpt><trkpt lat="39.29983763731902" lon="8.569125961119138"><ele>141.0</ele><time>2026-04-28T07:34:14.867Z</time></trkpt><trkpt lat="39.29973678454447" lon="8.569169694702314"><ele>141.0</ele><time>2026-04-28T07:34:15.866Z</time></trkpt><trkpt lat="39.29964791550937" lon="8.569190054187294"><ele>141.0</ele><time>2026-04-28T07:34:16.866Z</time></trkpt><trkpt lat="39.299568069710205" lon="8.569207048404714"><ele>141.0</ele><time>2026-04-28T07:34:17.866Z</time></trkpt><trkpt lat="39.2994988030934" lon="8.56919411940729"><ele>141.0</ele><time>2026-04-28T07:34:18.866Z</time></trkpt><trkpt lat="39.29943358435724" lon="8.569161802146265"><ele>141.2</ele><time>2026-04-28T07:34:19.866Z</time></trkpt><trkpt lat="39.299338312312095" lon="8.569072056009023"><ele>141.39999999999998</ele><time>2026-04-28T07:34:21.867Z</time></trkpt><trkpt lat="39.2992836993263" lon="8.569013645891923"><ele>141.6</ele><time>2026-04-28T07:34:23.865Z</time></trkpt><trkpt lat="39.299175726573814" lon="8.569061983118985"><ele>141.79999999999998</ele><time>2026-04-28T07:34:33.866Z</time></trkpt><trkpt lat="39.29914910529954" lon="8.569180581631851"><ele>142.0</ele><time>2026-04-28T07:34:35.866Z</time></trkpt><trkpt lat="39.299116574166604" lon="8.569311111238022"><ele>142.0</ele><time>2026-04-28T07:34:37.866Z</time></trkpt><trkpt lat="39.2990826645621" lon="8.569380269792509"><ele>142.0</ele><time>2026-04-28T07:34:38.866Z</time></trkpt><trkpt lat="39.2990330278068" lon="8.569432496984746"><ele>142.0</ele><time>2026-04-28T07:34:39.866Z</time></trkpt><trkpt lat="39.29896739140239" lon="8.569481018591864"><ele>142.0</ele><time>2026-04-28T07:34:40.866Z</time></trkpt><trkpt lat="39.298876004389534" lon="8.56951554367781"><ele>142.0</ele><time>2026-04-28T07:34:41.866Z</time></trkpt><trkpt lat="39.29879480877936" lon="8.56957903389117"><ele>142.0</ele><time>2026-04-28T07:34:42.866Z</time></trkpt><trkpt lat="39.298679406961384" lon="8.569586794740408"><ele>142.0</ele><time>2026-04-28T07:34:43.866Z</time></trkpt><trkpt lat="39.29858081167858" lon="8.569621969896502"><ele>142.0</ele><time>2026-04-28T07:34:44.866Z</time></trkpt><trkpt lat="39.298478626728375" lon="8.569660319662168"><ele>142.0</ele><time>2026-04-28T07:34:45.866Z</time></trkpt><trkpt lat="39.29838140536435" lon="8.569699447536875"><ele>142.0</ele><time>2026-04-28T07:34:46.866Z</time></trkpt><trkpt lat="39.298300849834554" lon="8.569728126542154"><ele>142.0</ele><time>2026-04-28T07:34:47.866Z</time></trkpt><trkpt lat="39.29823255541518" lon="8.569734847887675"><ele>142.0</ele><time>2026-04-28T07:34:48.866Z</time></trkpt><trkpt lat="39.29815992949423" lon="8.569727248969604"><ele>142.0</ele><time>2026-04-28T07:34:49.866Z</time></trkpt><trkpt lat="39.298095512815586" lon="8.569708914079653"><ele>142.0</ele><time>2026-04-28T07:34:50.866Z</time></trkpt><trkpt lat="39.29800184908561" lon="8.56970294765619"><ele>142.0</ele><time>2026-04-28T07:34:52.866Z</time></trkpt><trkpt lat="39.29793973634213" lon="8.569793770104305"><ele>142.0</ele><time>2026-04-28T07:34:54.866Z</time></trkpt><trkpt lat="39.297915019605746" lon="8.56987992962207"><ele>142.0</ele><time>2026-04-28T07:34:55.866Z</time></trkpt><trkpt lat="39.29788775173135" lon="8.56997927910844"><ele>141.2</ele><time>2026-04-28T07:34:56.866Z</time></trkpt><trkpt lat="39.29786291291222" lon="8.570106326175962"><ele>140.39999999999998</ele><time>2026-04-28T07:34:57.866Z</time></trkpt><trkpt lat="39.29784174779091" lon="8.570242498241997"><ele>139.60000000000002</ele><time>2026-04-28T07:34:58.866Z</time></trkpt><trkpt lat="39.29781975957346" lon="8.570381897910003"><ele>138.8</ele><time>2026-04-28T07:34:59.866Z</time></trkpt><trkpt lat="39.297795481341474" lon="8.570526320745275"><ele>138.0</ele><time>2026-04-28T07:35:00.866Z</time></trkpt><trkpt lat="39.297762508887025" lon="8.570680374606523"><ele>137.75</ele><time>2026-04-28T07:35:01.866Z</time></trkpt><trkpt lat="39.29773018262275" lon="8.570836172239419"><ele>137.5</ele><time>2026-04-28T07:35:02.866Z</time></trkpt><trkpt lat="39.29770053549675" lon="8.570993095899782"><ele>137.25</ele><time>2026-04-28T07:35:03.866Z</time></trkpt><trkpt lat="39.29767096061327" lon="8.571151217971833"><ele>137.0</ele><time>2026-04-28T07:35:04.866Z</time></trkpt><trkpt lat="39.2976381390861" lon="8.571318935389822"><ele>136.5</ele><time>2026-04-28T07:35:05.866Z</time></trkpt><trkpt lat="39.29760315022674" lon="8.571493955509629"><ele>136.0</ele><time>2026-04-28T07:35:06.866Z</time></trkpt><trkpt lat="39.29756125083059" lon="8.571661935608619"><ele>135.5</ele><time>2026-04-28T07:35:07.866Z</time></trkpt><trkpt lat="39.29750778085584" lon="8.571833226527497"><ele>135.0</ele><time>2026-04-28T07:35:08.866Z</time></trkpt><trkpt lat="39.29744973895419" lon="8.57199597538962"><ele>135.25</ele><time>2026-04-28T07:35:09.866Z</time></trkpt><trkpt lat="39.297385263687254" lon="8.57216114112311"><ele>135.5</ele><time>2026-04-28T07:35:10.866Z</time></trkpt><trkpt lat="39.29731934159989" lon="8.572325252123528"><ele>135.75</ele><time>2026-04-28T07:35:11.866Z</time></trkpt><trkpt lat="39.2972510753669" lon="8.572484226826145"><ele>136.0</ele><time>2026-04-28T07:35:12.865Z</time></trkpt><trkpt lat="39.29718348452703" lon="8.572648697344016"><ele>136.0</ele><time>2026-04-28T07:35:13.865Z</time></trkpt><trkpt lat="39.29711349215114" lon="8.572818335686158"><ele>136.0</ele><time>2026-04-28T07:35:14.865Z</time></trkpt><trkpt lat="39.29704339817518" lon="8.572993345012897"><ele>136.0</ele><time>2026-04-28T07:35:15.865Z</time></trkpt><trkpt lat="39.29697320949299" lon="8.57317177128057"><ele>135.66666666666669</ele><time>2026-04-28T07:35:16.865Z</time></trkpt><trkpt lat="39.296902770278784" lon="8.573341564143732"><ele>135.33333333333334</ele><time>2026-04-28T07:35:17.865Z</time></trkpt><trkpt lat="39.29683311621956" lon="8.573513653952796"><ele>135.0</ele><time>2026-04-28T07:35:18.865Z</time></trkpt><trkpt lat="39.296760352620915" lon="8.573684371793556"><ele>135.0</ele><time>2026-04-28T07:35:19.865Z</time></trkpt><trkpt lat="39.29669382169162" lon="8.573854815808158"><ele>135.0</ele><time>2026-04-28T07:35:20.865Z</time></trkpt><trkpt lat="39.296618450683575" lon="8.574031312136082"><ele>135.0</ele><time>2026-04-28T07:35:21.865Z</time></trkpt><trkpt lat="39.29654420286459" lon="8.574208996725954"><ele>135.0</ele><time>2026-04-28T07:35:22.865Z</time></trkpt><trkpt lat="39.2964712479847" lon="8.574392899827785"><ele>135.0</ele><time>2026-04-28T07:35:23.865Z</time></trkpt><trkpt lat="39.29638888643902" lon="8.57459171285668"><ele>135.0</ele><time>2026-04-28T07:35:24.865Z</time></trkpt><trkpt lat="39.29630907823855" lon="8.574786300115107"><ele>135.0</ele><time>2026-04-28T07:35:25.865Z</time></trkpt><trkpt lat="39.296223698216274" lon="8.574999209942337"><ele>135.0</ele><time>2026-04-28T07:35:26.865Z</time></trkpt><trkpt lat="39.296135387565236" lon="8.575210600209582"><ele>135.0</ele><time>2026-04-28T07:35:27.865Z</time></trkpt><trkpt lat="39.29605173699894" lon="8.575425874831009"><ele>135.0</ele><time>2026-04-28T07:35:28.865Z</time></trkpt><trkpt lat="39.29597022653296" lon="8.575645134455568"><ele>135.0</ele><time>2026-04-28T07:35:29.865Z</time></trkpt><trkpt lat="39.29588062298923" lon="8.575857283071723"><ele>135.0</ele><time>2026-04-28T07:35:30.865Z</time></trkpt><trkpt lat="39.29579212060943" lon="8.5760700446183"><ele>135.0</ele><time>2026-04-28T07:35:31.865Z</time></trkpt><trkpt lat="39.29569945642856" lon="8.576281478785608"><ele>135.0</ele><time>2026-04-28T07:35:32.865Z</time></trkpt><trkpt lat="39.295598350706406" lon="8.57650063615973"><ele>135.0</ele><time>2026-04-28T07:35:33.865Z</time></trkpt><trkpt lat="39.295490317668275" lon="8.576712348673672"><ele>134.66666666666666</ele><time>2026-04-28T07:35:34.865Z</time></trkpt><trkpt lat="39.29537976295466" lon="8.576929870914013"><ele>134.33333333333331</ele><time>2026-04-28T07:35:35.865Z</time></trkpt><trkpt lat="39.29526253341959" lon="8.577145571286806"><ele>134.0</ele><time>2026-04-28T07:35:36.865Z</time></trkpt><trkpt lat="39.29513965535627" lon="8.577356895843156"><ele>133.33333333333331</ele><time>2026-04-28T07:35:37.865Z</time></trkpt><trkpt lat="39.295020207879865" lon="8.57757126956003"><ele>132.66666666666666</ele><time>2026-04-28T07:35:38.865Z</time></trkpt><trkpt lat="39.29490336312244" lon="8.577783398322612"><ele>132.0</ele><time>2026-04-28T07:35:39.865Z</time></trkpt><trkpt lat="39.294779738882994" lon="8.578001952947423"><ele>132.33333333333334</ele><time>2026-04-28T07:35:40.865Z</time></trkpt><trkpt lat="39.29467066417462" lon="8.578207779875767"><ele>132.66666666666669</ele><time>2026-04-28T07:35:41.865Z</time></trkpt><trkpt lat="39.29456862563814" lon="8.578398938299154"><ele>133.0</ele><time>2026-04-28T07:35:42.865Z</time></trkpt><trkpt lat="39.294480444064156" lon="8.57858958051758"><ele>132.66666666666669</ele><time>2026-04-28T07:35:43.865Z</time></trkpt><trkpt lat="39.29440475845789" lon="8.578793704084227"><ele>132.33333333333334</ele><time>2026-04-28T07:35:44.865Z</time></trkpt><trkpt lat="39.29434784418868" lon="8.579001761158757"><ele>132.0</ele><time>2026-04-28T07:35:45.865Z</time></trkpt><trkpt lat="39.29429286878576" lon="8.579215545964113"><ele>132.0</ele><time>2026-04-28T07:35:46.865Z</time></trkpt><trkpt lat="39.29423386220881" lon="8.57944400466556"><ele>132.0</ele><time>2026-04-28T07:35:47.865Z</time></trkpt><trkpt lat="39.29416659401109" lon="8.579673784592886"><ele>132.0</ele><time>2026-04-28T07:35:48.865Z</time></trkpt><trkpt lat="39.29409739231894" lon="8.579905979733626"><ele>132.0</ele><time>2026-04-28T07:35:49.865Z</time></trkpt><trkpt lat="39.29403223076147" lon="8.580146864399993"><ele>132.0</ele><time>2026-04-28T07:35:50.865Z</time></trkpt><trkpt lat="39.29396632339857" lon="8.58037892697093"><ele>132.0</ele><time>2026-04-28T07:35:51.865Z</time></trkpt><trkpt lat="39.29389368916686" lon="8.58061719967576"><ele>131.33333333333334</ele><time>2026-04-28T07:35:52.865Z</time></trkpt><trkpt lat="39.293824858070096" lon="8.580859735814883"><ele>130.66666666666669</ele><time>2026-04-28T07:35:53.865Z</time></trkpt><trkpt lat="39.29375518968345" lon="8.58109688295394"><ele>130.0</ele><time>2026-04-28T07:35:54.865Z</time></trkpt><trkpt lat="39.293685689305434" lon="8.581329950780916"><ele>129.66666666666669</ele><time>2026-04-28T07:35:55.865Z</time></trkpt><trkpt lat="39.29361436350993" lon="8.581564922167349"><ele>129.33333333333334</ele><time>2026-04-28T07:35:56.865Z</time></trkpt><trkpt lat="39.293516469880416" lon="8.581769152714767"><ele>129.0</ele><time>2026-04-28T07:35:57.865Z</time></trkpt><trkpt lat="39.293421592452866" lon="8.58197020790562"><ele>129.33333333333334</ele><time>2026-04-28T07:35:58.865Z</time></trkpt><trkpt lat="39.293316907205906" lon="8.582167950363587"><ele>129.66666666666669</ele><time>2026-04-28T07:35:59.865Z</time></trkpt><trkpt lat="39.29321408994335" lon="8.582380402508456"><ele>130.0</ele><time>2026-04-28T07:36:00.865Z</time></trkpt><trkpt lat="39.29311401874242" lon="8.582589761483453"><ele>129.33333333333334</ele><time>2026-04-28T07:36:01.865Z</time></trkpt><trkpt lat="39.293014558173766" lon="8.582795950394415"><ele>128.66666666666666</ele><time>2026-04-28T07:36:02.865Z</time></trkpt><trkpt lat="39.2929180587963" lon="8.583002964115469"><ele>128.0</ele><time>2026-04-28T07:36:03.865Z</time></trkpt><trkpt lat="39.2928223611659" lon="8.583219169667212"><ele>128.0</ele><time>2026-04-28T07:36:04.865Z</time></trkpt><trkpt lat="39.292718881360834" lon="8.583422899923065"><ele>128.0</ele><time>2026-04-28T07:36:05.865Z</time></trkpt><trkpt lat="39.29261997853218" lon="8.583632807295492"><ele>128.0</ele><time>2026-04-28T07:36:06.865Z</time></trkpt><trkpt lat="39.29252163153416" lon="8.583844686806335"><ele>128.33333333333331</ele><time>2026-04-28T07:36:07.865Z</time></trkpt><trkpt lat="39.29242384524848" lon="8.584053413255544"><ele>128.66666666666666</ele><time>2026-04-28T07:36:08.865Z</time></trkpt><trkpt lat="39.29232496530572" lon="8.584263414341235"><ele>129.0</ele><time>2026-04-28T07:36:09.865Z</time></trkpt><trkpt lat="39.2922260267773" lon="8.584474446080318"><ele>129.0</ele><time>2026-04-28T07:36:10.865Z</time></trkpt><trkpt lat="39.29212916367848" lon="8.584680535390376"><ele>129.0</ele><time>2026-04-28T07:36:11.865Z</time></trkpt><trkpt lat="39.29203281883328" lon="8.584891155666504"><ele>129.0</ele><time>2026-04-28T07:36:12.865Z</time></trkpt><trkpt lat="39.29193093529044" lon="8.585101458175998"><ele>129.0</ele><time>2026-04-28T07:36:13.865Z</time></trkpt><trkpt lat="39.291831589278765" lon="8.585315570219167"><ele>129.0</ele><time>2026-04-28T07:36:14.865Z</time></trkpt><trkpt lat="39.29172912535866" lon="8.585529989576353"><ele>129.0</ele><time>2026-04-28T07:36:15.865Z</time></trkpt><trkpt lat="39.291625600370836" lon="8.585748934016925"><ele>129.33333333333334</ele><time>2026-04-28T07:36:16.865Z</time></trkpt><trkpt lat="39.29152289635381" lon="8.585962851474093"><ele>129.66666666666669</ele><time>2026-04-28T07:36:17.865Z</time></trkpt><trkpt lat="39.291422625305984" lon="8.58618051959365"><ele>130.0</ele><time>2026-04-28T07:36:18.865Z</time></trkpt><trkpt lat="39.29132093158856" lon="8.58639793347082"><ele>129.0</ele><time>2026-04-28T07:36:19.865Z</time></trkpt><trkpt lat="39.29122416228837" lon="8.586608215556605"><ele>128.0</ele><time>2026-04-28T07:36:20.865Z</time></trkpt><trkpt lat="39.291142248393754" lon="8.586810598797559"><ele>127.0</ele><time>2026-04-28T07:36:21.865Z</time></trkpt><trkpt lat="39.29107853345232" lon="8.587008055326361"><ele>127.66666666666667</ele><time>2026-04-28T07:36:22.864Z</time></trkpt><trkpt lat="39.29102461986333" lon="8.587215151086692"><ele>128.33333333333334</ele><time>2026-04-28T07:36:23.864Z</time></trkpt><trkpt lat="39.290987668504414" lon="8.58742104040112"><ele>129.0</ele><time>2026-04-28T07:36:24.865Z</time></trkpt><trkpt lat="39.29096906452583" lon="8.587630143698341"><ele>129.33333333333334</ele><time>2026-04-28T07:36:25.865Z</time></trkpt><trkpt lat="39.29095732009744" lon="8.587854062175637"><ele>129.66666666666669</ele><time>2026-04-28T07:36:26.865Z</time></trkpt><trkpt lat="39.290956527110204" lon="8.588084861551504"><ele>130.0</ele><time>2026-04-28T07:36:27.865Z</time></trkpt><trkpt lat="39.29096016938524" lon="8.588311831335005"><ele>130.0</ele><time>2026-04-28T07:36:28.865Z</time></trkpt><trkpt lat="39.290959266348075" lon="8.588545487076075"><ele>130.0</ele><time>2026-04-28T07:36:29.865Z</time></trkpt><trkpt lat="39.29096473170236" lon="8.58879071256446"><ele>130.0</ele><time>2026-04-28T07:36:30.865Z</time></trkpt><trkpt lat="39.290969749391294" lon="8.589039429018166"><ele>129.66666666666669</ele><time>2026-04-28T07:36:31.865Z</time></trkpt><trkpt lat="39.29097518117705" lon="8.589286113808543"><ele>129.33333333333334</ele><time>2026-04-28T07:36:32.865Z</time></trkpt><trkpt lat="39.2909793770474" lon="8.589531388759593"><ele>129.0</ele><time>2026-04-28T07:36:33.865Z</time></trkpt><trkpt lat="39.290984300150804" lon="8.58978255590467"><ele>128.33333333333334</ele><time>2026-04-28T07:36:34.865Z</time></trkpt><trkpt lat="39.290984939836186" lon="8.590036273522449"><ele>127.66666666666667</ele><time>2026-04-28T07:36:35.865Z</time></trkpt><trkpt lat="39.29098772185351" lon="8.5902837487734"><ele>127.0</ele><time>2026-04-28T07:36:36.865Z</time></trkpt><trkpt lat="39.29099721582465" lon="8.590542544099124"><ele>127.0</ele><time>2026-04-28T07:36:37.865Z</time></trkpt><trkpt lat="39.29099535392571" lon="8.590787715693715"><ele>127.0</ele><time>2026-04-28T07:36:38.865Z</time></trkpt><trkpt lat="39.29099079008657" lon="8.59102714055921"><ele>127.0</ele><time>2026-04-28T07:36:39.865Z</time></trkpt><trkpt lat="39.29099156796239" lon="8.591280058046877"><ele>127.33333333333334</ele><time>2026-04-28T07:36:40.865Z</time></trkpt><trkpt lat="39.29099474063277" lon="8.591527232487016"><ele>127.66666666666666</ele><time>2026-04-28T07:36:41.865Z</time></trkpt><trkpt lat="39.29099818391869" lon="8.59177035206325"><ele>128.0</ele><time>2026-04-28T07:36:42.865Z</time></trkpt><trkpt lat="39.29100729028458" lon="8.59201091357451"><ele>128.66666666666666</ele><time>2026-04-28T07:36:43.865Z</time></trkpt><trkpt lat="39.291011072499835" lon="8.592248988779726"><ele>129.33333333333334</ele><time>2026-04-28T07:36:44.865Z</time></trkpt><trkpt lat="39.29101420893858" lon="8.592488144107431"><ele>130.0</ele><time>2026-04-28T07:36:45.865Z</time></trkpt><trkpt lat="39.29101013368581" lon="8.592724199991167"><ele>130.33333333333334</ele><time>2026-04-28T07:36:46.865Z</time></trkpt><trkpt lat="39.291011420213195" lon="8.592946815112233"><ele>130.66666666666666</ele><time>2026-04-28T07:36:47.865Z</time></trkpt><trkpt lat="39.29101157876479" lon="8.59316903759496"><ele>131.0</ele><time>2026-04-28T07:36:48.865Z</time></trkpt><trkpt lat="39.291016577548554" lon="8.593390129298855"><ele>131.0</ele><time>2026-04-28T07:36:49.865Z</time></trkpt><trkpt lat="39.29101641530583" lon="8.593610228870606"><ele>131.0</ele><time>2026-04-28T07:36:50.865Z</time></trkpt><trkpt lat="39.291008916092494" lon="8.593823249903735"><ele>131.0</ele><time>2026-04-28T07:36:51.865Z</time></trkpt><trkpt lat="39.29099115322524" lon="8.594038918238594"><ele>131.0</ele><time>2026-04-28T07:36:52.865Z</time></trkpt><trkpt lat="39.290958429686064" lon="8.594237176914616"><ele>131.0</ele><time>2026-04-28T07:36:53.865Z</time></trkpt><trkpt lat="39.29091668777338" lon="8.594435583964025"><ele>131.0</ele><time>2026-04-28T07:36:54.865Z</time></trkpt><trkpt lat="39.29085991130373" lon="8.59462490003031"><ele>131.0</ele><time>2026-04-28T07:36:55.865Z</time></trkpt><trkpt lat="39.29079040554676" lon="8.594804379732349"><ele>131.0</ele><time>2026-04-28T07:36:56.865Z</time></trkpt><trkpt lat="39.29071540278871" lon="8.594978110396315"><ele>131.0</ele><time>2026-04-28T07:36:57.865Z</time></trkpt><trkpt lat="39.290631024775024" lon="8.595148977332164"><ele>131.0</ele><time>2026-04-28T07:36:58.865Z</time></trkpt><trkpt lat="39.290543276853256" lon="8.595319551045932"><ele>131.0</ele><time>2026-04-28T07:36:59.865Z</time></trkpt><trkpt lat="39.29045971454854" lon="8.595497302830482"><ele>131.0</ele><time>2026-04-28T07:37:00.865Z</time></trkpt><trkpt lat="39.290371253204746" lon="8.595676912600249"><ele>131.0</ele><time>2026-04-28T07:37:01.865Z</time></trkpt><trkpt lat="39.290277355335895" lon="8.595856662956958"><ele>131.0</ele><time>2026-04-28T07:37:02.865Z</time></trkpt><trkpt lat="39.29018150355425" lon="8.596027766152954"><ele>131.0</ele><time>2026-04-28T07:37:03.865Z</time></trkpt><trkpt lat="39.290088031224506" lon="8.596216580896268"><ele>130.66666666666666</ele><time>2026-04-28T07:37:04.865Z</time></trkpt><trkpt lat="39.289991517542845" lon="8.596410497586636"><ele>130.33333333333334</ele><time>2026-04-28T07:37:05.865Z</time></trkpt><trkpt lat="39.28989252327071" lon="8.596608884998744"><ele>130.0</ele><time>2026-04-28T07:37:06.865Z</time></trkpt><trkpt lat="39.289806273327486" lon="8.596820358401027"><ele>129.33333333333334</ele><time>2026-04-28T07:37:07.865Z</time></trkpt><trkpt lat="39.289701616177155" lon="8.597020146968733"><ele>128.66666666666666</ele><time>2026-04-28T07:37:08.865Z</time></trkpt><trkpt lat="39.289591315435025" lon="8.597215573146126"><ele>128.0</ele><time>2026-04-28T07:37:09.865Z</time></trkpt><trkpt lat="39.28950427298765" lon="8.59742706376015"><ele>128.0</ele><time>2026-04-28T07:37:10.865Z</time></trkpt><trkpt lat="39.28940268610357" lon="8.59762585029036"><ele>128.0</ele><time>2026-04-28T07:37:11.865Z</time></trkpt><trkpt lat="39.28929969700932" lon="8.597823233932022"><ele>128.0</ele><time>2026-04-28T07:37:12.865Z</time></trkpt><trkpt lat="39.289203014670306" lon="8.59802864425479"><ele>128.0</ele><time>2026-04-28T07:37:13.865Z</time></trkpt><trkpt lat="39.2890965917348" lon="8.598231902367024"><ele>128.0</ele><time>2026-04-28T07:37:14.865Z</time></trkpt><trkpt lat="39.28899056985935" lon="8.598442362660839"><ele>128.0</ele><time>2026-04-28T07:37:15.865Z</time></trkpt><trkpt lat="39.288887673200136" lon="8.598656327450088"><ele>128.0</ele><time>2026-04-28T07:37:16.865Z</time></trkpt><trkpt lat="39.28877952979126" lon="8.598871523368615"><ele>128.0</ele><time>2026-04-28T07:37:17.865Z</time></trkpt><trkpt lat="39.28867264657928" lon="8.599094421545226"><ele>128.0</ele><time>2026-04-28T07:37:18.865Z</time></trkpt><trkpt lat="39.288563282085725" lon="8.599318462378626"><ele>127.66666666666666</ele><time>2026-04-28T07:37:19.865Z</time></trkpt><trkpt lat="39.288452772593885" lon="8.59954223251949"><ele>127.33333333333334</ele><time>2026-04-28T07:37:20.865Z</time></trkpt><trkpt lat="39.28831846390917" lon="8.59974413441435"><ele>127.0</ele><time>2026-04-28T07:37:21.865Z</time></trkpt><trkpt lat="39.28820446164461" lon="8.599972911301517"><ele>126.33333333333334</ele><time>2026-04-28T07:37:22.865Z</time></trkpt><trkpt lat="39.288091720857594" lon="8.60020094808964"><ele>125.66666666666666</ele><time>2026-04-28T07:37:23.865Z</time></trkpt><trkpt lat="39.28797837127898" lon="8.600429641965274"><ele>125.0</ele><time>2026-04-28T07:37:24.865Z</time></trkpt><trkpt lat="39.287866043609384" lon="8.600662237439153"><ele>125.0</ele><time>2026-04-28T07:37:25.865Z</time></trkpt><trkpt lat="39.28776584009703" lon="8.600907145947374"><ele>125.0</ele><time>2026-04-28T07:37:26.865Z</time></trkpt><trkpt lat="39.28765484727785" lon="8.601136261477937"><ele>125.0</ele><time>2026-04-28T07:37:27.865Z</time></trkpt><trkpt lat="39.28754386561764" lon="8.601361857036569"><ele>125.0</ele><time>2026-04-28T07:37:28.865Z</time></trkpt><trkpt lat="39.28743049073598" lon="8.601584737364817"><ele>125.0</ele><time>2026-04-28T07:37:29.865Z</time></trkpt><trkpt lat="39.2873200972714" lon="8.601804192797458"><ele>125.0</ele><time>2026-04-28T07:37:30.865Z</time></trkpt><trkpt lat="39.28721220712557" lon="8.60203119221905"><ele>125.0</ele><time>2026-04-28T07:37:31.865Z</time></trkpt><trkpt lat="39.28710887688743" lon="8.602256742581003"><ele>125.0</ele><time>2026-04-28T07:37:32.865Z</time></trkpt><trkpt lat="39.287005283889556" lon="8.602486798256692"><ele>125.0</ele><time>2026-04-28T07:37:33.865Z</time></trkpt><trkpt lat="39.28690135340637" lon="8.602713809189593"><ele>124.33333333333333</ele><time>2026-04-28T07:37:34.865Z</time></trkpt><trkpt lat="39.28679896295878" lon="8.602941927282576"><ele>123.66666666666666</ele><time>2026-04-28T07:37:35.865Z</time></trkpt><trkpt lat="39.286695673563614" lon="8.603172209081247"><ele>123.0</ele><time>2026-04-28T07:37:36.865Z</time></trkpt><trkpt lat="39.28659182796292" lon="8.603398517843651"><ele>123.0</ele><time>2026-04-28T07:37:37.865Z</time></trkpt><trkpt lat="39.28649502948461" lon="8.603617990984603"><ele>123.0</ele><time>2026-04-28T07:37:38.865Z</time></trkpt><trkpt lat="39.28640375322787" lon="8.60383241179917"><ele>123.0</ele><time>2026-04-28T07:37:39.865Z</time></trkpt><trkpt lat="39.28632104003152" lon="8.604056305649195"><ele>122.66666666666666</ele><time>2026-04-28T07:37:40.865Z</time></trkpt><trkpt lat="39.286253036659126" lon="8.604277361915667"><ele>122.33333333333333</ele><time>2026-04-28T07:37:41.865Z</time></trkpt><trkpt lat="39.286194277811425" lon="8.604502273425847"><ele>122.0</ele><time>2026-04-28T07:37:42.865Z</time></trkpt><trkpt lat="39.28614445962655" lon="8.604724638904964"><ele>121.66666666666666</ele><time>2026-04-28T07:37:43.865Z</time></trkpt><trkpt lat="39.28610027636247" lon="8.604952702054277"><ele>121.33333333333334</ele><time>2026-04-28T07:37:44.865Z</time></trkpt><trkpt lat="39.28606121147943" lon="8.605177974503821"><ele>121.0</ele><time>2026-04-28T07:37:45.865Z</time></trkpt><trkpt lat="39.28603184791211" lon="8.605409972548541"><ele>120.66666666666667</ele><time>2026-04-28T07:37:46.865Z</time></trkpt><trkpt lat="39.28600955026882" lon="8.605652611764581"><ele>120.33333333333334</ele><time>2026-04-28T07:37:47.865Z</time></trkpt><trkpt lat="39.285993504215384" lon="8.605893080682876"><ele>120.0</ele><time>2026-04-28T07:37:48.865Z</time></trkpt><trkpt lat="39.28597375341244" lon="8.606129369083318"><ele>120.33333333333334</ele><time>2026-04-28T07:37:49.865Z</time></trkpt><trkpt lat="39.28595766364367" lon="8.606365466639069"><ele>120.66666666666667</ele><time>2026-04-28T07:37:50.865Z</time></trkpt><trkpt lat="39.28594398402781" lon="8.606588421524796"><ele>121.0</ele><time>2026-04-28T07:37:51.865Z</time></trkpt><trkpt lat="39.28592913360357" lon="8.606815509837825"><ele>120.66666666666667</ele><time>2026-04-28T07:37:52.865Z</time></trkpt><trkpt lat="39.28591308989033" lon="8.60702596592191"><ele>120.33333333333334</ele><time>2026-04-28T07:37:53.865Z</time></trkpt><trkpt lat="39.28589862890222" lon="8.607240552905726"><ele>120.0</ele><time>2026-04-28T07:37:54.865Z</time></trkpt><trkpt lat="39.28588480127535" lon="8.607453555588068"><ele>120.0</ele><time>2026-04-28T07:37:55.865Z</time></trkpt><trkpt lat="39.285876558414294" lon="8.607667968736"><ele>120.0</ele><time>2026-04-28T07:37:56.865Z</time></trkpt><trkpt lat="39.28584541033798" lon="8.607864618035117"><ele>120.0</ele><time>2026-04-28T07:37:57.865Z</time></trkpt><trkpt lat="39.28584507367349" lon="8.608077398365829"><ele>119.66666666666666</ele><time>2026-04-28T07:37:58.865Z</time></trkpt><trkpt lat="39.28585390843653" lon="8.60829670068047"><ele>119.33333333333333</ele><time>2026-04-28T07:37:59.865Z</time></trkpt><trkpt lat="39.28586268789413" lon="8.608513163338484"><ele>119.0</ele><time>2026-04-28T07:38:00.865Z</time></trkpt><trkpt lat="39.28587278722065" lon="8.608736307605417"><ele>119.0</ele><time>2026-04-28T07:38:01.865Z</time></trkpt><trkpt lat="39.28588136885618" lon="8.608961913619387"><ele>119.0</ele><time>2026-04-28T07:38:02.865Z</time></trkpt><trkpt lat="39.28589036241179" lon="8.609184798440815"><ele>119.0</ele><time>2026-04-28T07:38:03.865Z</time></trkpt><trkpt lat="39.28589137582404" lon="8.609402922402124"><ele>118.66666666666666</ele><time>2026-04-28T07:38:04.865Z</time></trkpt><trkpt lat="39.28587996862214" lon="8.60962048010493"><ele>118.33333333333334</ele><time>2026-04-28T07:38:05.865Z</time></trkpt><trkpt lat="39.2858555663606" lon="8.609844373672297"><ele>118.0</ele><time>2026-04-28T07:38:06.865Z</time></trkpt><trkpt lat="39.28582713730352" lon="8.610068838952808"><ele>118.0</ele><time>2026-04-28T07:38:07.865Z</time></trkpt><trkpt lat="39.28578961782368" lon="8.610297553868548"><ele>118.0</ele><time>2026-04-28T07:38:08.865Z</time></trkpt><trkpt lat="39.28574829713009" lon="8.610532057453913"><ele>118.0</ele><time>2026-04-28T07:38:09.865Z</time></trkpt><trkpt lat="39.28568161297852" lon="8.610764577142778"><ele>118.33333333333334</ele><time>2026-04-28T07:38:10.865Z</time></trkpt><trkpt lat="39.2856254803323" lon="8.611012982301236"><ele>118.66666666666666</ele><time>2026-04-28T07:38:11.865Z</time></trkpt><trkpt lat="39.285569158886034" lon="8.611262223268279"><ele>119.0</ele><time>2026-04-28T07:38:12.865Z</time></trkpt><trkpt lat="39.28552716134176" lon="8.611517561753471"><ele>118.66666666666666</ele><time>2026-04-28T07:38:13.865Z</time></trkpt><trkpt lat="39.28546396273498" lon="8.611767005363463"><ele>118.33333333333334</ele><time>2026-04-28T07:38:14.865Z</time></trkpt><trkpt lat="39.2854022799786" lon="8.612019464603845"><ele>118.0</ele><time>2026-04-28T07:38:15.865Z</time></trkpt><trkpt lat="39.28534624163566" lon="8.612280255505592"><ele>118.0</ele><time>2026-04-28T07:38:16.865Z</time></trkpt><trkpt lat="39.285290111318496" lon="8.612542082398274"><ele>118.0</ele><time>2026-04-28T07:38:17.865Z</time></trkpt><trkpt lat="39.285232896511566" lon="8.612797847488759"><ele>118.0</ele><time>2026-04-28T07:38:18.865Z</time></trkpt><trkpt lat="39.28517565053087" lon="8.61304925674695"><ele>118.0</ele><time>2026-04-28T07:38:19.865Z</time></trkpt><trkpt lat="39.28512192081392" lon="8.613295969318603"><ele>118.0</ele><time>2026-04-28T07:38:20.865Z</time></trkpt><trkpt lat="39.28506333740024" lon="8.61354700241146"><ele>118.0</ele><time>2026-04-28T07:38:21.865Z</time></trkpt><trkpt lat="39.28501070547977" lon="8.613808050922641"><ele>117.66666666666667</ele><time>2026-04-28T07:38:22.865Z</time></trkpt><trkpt lat="39.28495656315626" lon="8.614060694191046"><ele>117.33333333333334</ele><time>2026-04-28T07:38:23.865Z</time></trkpt><trkpt lat="39.28489867670823" lon="8.614314897861558"><ele>117.0</ele><time>2026-04-28T07:38:24.865Z</time></trkpt><trkpt lat="39.28484242144836" lon="8.614564793840364"><ele>117.0</ele><time>2026-04-28T07:38:25.865Z</time></trkpt><trkpt lat="39.2847860526748" lon="8.614812911357419"><ele>117.0</ele><time>2026-04-28T07:38:26.865Z</time></trkpt><trkpt lat="39.284735002523774" lon="8.615059719933164"><ele>117.0</ele><time>2026-04-28T07:38:27.864Z</time></trkpt><trkpt lat="39.284692197659716" lon="8.61530866537564"><ele>116.0</ele><time>2026-04-28T07:38:28.864Z</time></trkpt><trkpt lat="39.28465583660654" lon="8.615550284010993"><ele>115.0</ele><time>2026-04-28T07:38:29.864Z</time></trkpt><trkpt lat="39.28463461401981" lon="8.61578709120055"><ele>114.0</ele><time>2026-04-28T07:38:30.864Z</time></trkpt><trkpt lat="39.28462304759177" lon="8.616019787214096"><ele>113.33333333333334</ele><time>2026-04-28T07:38:31.864Z</time></trkpt><trkpt lat="39.284623708005824" lon="8.616263346436561"><ele>112.66666666666667</ele><time>2026-04-28T07:38:32.864Z</time></trkpt><trkpt lat="39.284621363065924" lon="8.616520720003322"><ele>112.0</ele><time>2026-04-28T07:38:33.864Z</time></trkpt><trkpt lat="39.284618862583756" lon="8.61678804274973"><ele>112.66666666666667</ele><time>2026-04-28T07:38:34.864Z</time></trkpt><trkpt lat="39.28461680801427" lon="8.617061722980148"><ele>113.33333333333334</ele><time>2026-04-28T07:38:35.864Z</time></trkpt><trkpt lat="39.28461208589824" lon="8.617339029068303"><ele>114.0</ele><time>2026-04-28T07:38:36.864Z</time></trkpt><trkpt lat="39.284611124071006" lon="8.617622463075495"><ele>113.66666666666666</ele><time>2026-04-28T07:38:37.864Z</time></trkpt><trkpt lat="39.28460660199443" lon="8.617900957706334"><ele>113.33333333333333</ele><time>2026-04-28T07:38:38.864Z</time></trkpt><trkpt lat="39.28460325103937" lon="8.61818255098137"><ele>113.0</ele><time>2026-04-28T07:38:39.864Z</time></trkpt><trkpt lat="39.2845944403418" lon="8.618457555089101"><ele>112.0</ele><time>2026-04-28T07:38:40.864Z</time></trkpt><trkpt lat="39.284597419856645" lon="8.618743520579194"><ele>111.0</ele><time>2026-04-28T07:38:41.864Z</time></trkpt><trkpt lat="39.284596121808555" lon="8.619026007782821"><ele>110.0</ele><time>2026-04-28T07:38:42.864Z</time></trkpt><trkpt lat="39.28459091615633" lon="8.61930591169622"><ele>110.33333333333333</ele><time>2026-04-28T07:38:43.864Z</time></trkpt><trkpt lat="39.28458659622346" lon="8.619583116374297"><ele>110.66666666666666</ele><time>2026-04-28T07:38:44.864Z</time></trkpt><trkpt lat="39.28458680376038" lon="8.619863252139956"><ele>111.0</ele><time>2026-04-28T07:38:45.864Z</time></trkpt><trkpt lat="39.28458737662354" lon="8.620146202321443"><ele>111.0</ele><time>2026-04-28T07:38:46.864Z</time></trkpt><trkpt lat="39.28458426084056" lon="8.620431280428294"><ele>111.0</ele><time>2026-04-28T07:38:47.864Z</time></trkpt><trkpt lat="39.28458364731628" lon="8.62072048996533"><ele>111.0</ele><time>2026-04-28T07:38:48.864Z</time></trkpt><trkpt lat="39.28458491400854" lon="8.62101038127939"><ele>110.66666666666666</ele><time>2026-04-28T07:38:49.864Z</time></trkpt><trkpt lat="39.28458174257453" lon="8.621291684702909"><ele>110.33333333333333</ele><time>2026-04-28T07:38:50.864Z</time></trkpt><trkpt lat="39.284579693298475" lon="8.621579537985383"><ele>110.0</ele><time>2026-04-28T07:38:51.864Z</time></trkpt><trkpt lat="39.284578735003414" lon="8.621873149607817"><ele>110.0</ele><time>2026-04-28T07:38:52.864Z</time></trkpt><trkpt lat="39.284578289200425" lon="8.622162245911863"><ele>110.0</ele><time>2026-04-28T07:38:53.864Z</time></trkpt><trkpt lat="39.28457540658975" lon="8.62245031245716"><ele>110.0</ele><time>2026-04-28T07:38:54.864Z</time></trkpt><trkpt lat="39.284569497439335" lon="8.62272967670473"><ele>110.33333333333333</ele><time>2026-04-28T07:38:55.864Z</time></trkpt><trkpt lat="39.28456179645734" lon="8.623002997235913"><ele>110.66666666666666</ele><time>2026-04-28T07:38:56.864Z</time></trkpt><trkpt lat="39.28454457450032" lon="8.62327869968744"><ele>111.0</ele><time>2026-04-28T07:38:57.864Z</time></trkpt><trkpt lat="39.284519042151516" lon="8.623549812525118"><ele>110.66666666666666</ele><time>2026-04-28T07:38:58.864Z</time></trkpt><trkpt lat="39.2844838037833" lon="8.623815170007983"><ele>110.33333333333333</ele><time>2026-04-28T07:38:59.864Z</time></trkpt><trkpt lat="39.28443639322634" lon="8.624075674172438"><ele>110.0</ele><time>2026-04-28T07:39:00.864Z</time></trkpt><trkpt lat="39.284379648017755" lon="8.624331925260446"><ele>110.33333333333333</ele><time>2026-04-28T07:39:01.864Z</time></trkpt><trkpt lat="39.28431903412899" lon="8.624594456690872"><ele>110.66666666666666</ele><time>2026-04-28T07:39:02.864Z</time></trkpt><trkpt lat="39.28424829047319" lon="8.624854096811296"><ele>111.0</ele><time>2026-04-28T07:39:03.864Z</time></trkpt><trkpt lat="39.2841744915258" lon="8.625120750668797"><ele>110.66666666666666</ele><time>2026-04-28T07:39:04.864Z</time></trkpt><trkpt lat="39.284101131431264" lon="8.625383584279023"><ele>110.33333333333333</ele><time>2026-04-28T07:39:05.864Z</time></trkpt><trkpt lat="39.284030306067464" lon="8.625659687632618"><ele>110.0</ele><time>2026-04-28T07:39:06.864Z</time></trkpt><trkpt lat="39.2839534789105" lon="8.625925235881555"><ele>110.33333333333333</ele><time>2026-04-28T07:39:07.864Z</time></trkpt><trkpt lat="39.28387917010831" lon="8.626192367099117"><ele>110.66666666666666</ele><time>2026-04-28T07:39:08.864Z</time></trkpt><trkpt lat="39.28380621011759" lon="8.626465693253724"><ele>111.0</ele><time>2026-04-28T07:39:09.864Z</time></trkpt><trkpt lat="39.28373178863992" lon="8.626734652468324"><ele>111.0</ele><time>2026-04-28T07:39:10.864Z</time></trkpt><trkpt lat="39.28365697888251" lon="8.62700708377609"><ele>111.0</ele><time>2026-04-28T07:39:11.864Z</time></trkpt><trkpt lat="39.283577117102176" lon="8.627278725884777"><ele>111.0</ele><time>2026-04-28T07:39:12.864Z</time></trkpt><trkpt lat="39.28349771952186" lon="8.627542234159785"><ele>110.66666666666666</ele><time>2026-04-28T07:39:13.864Z</time></trkpt><trkpt lat="39.28342754345873" lon="8.627819366412535"><ele>110.33333333333333</ele><time>2026-04-28T07:39:14.864Z</time></trkpt><trkpt lat="39.283354882750416" lon="8.628090620444919"><ele>110.0</ele><time>2026-04-28T07:39:15.864Z</time></trkpt><trkpt lat="39.28327959418817" lon="8.628363204530597"><ele>110.0</ele><time>2026-04-28T07:39:16.864Z</time></trkpt><trkpt lat="39.283208765490926" lon="8.628637088985194"><ele>110.0</ele><time>2026-04-28T07:39:17.864Z</time></trkpt><trkpt lat="39.283134984859885" lon="8.628907161675283"><ele>110.0</ele><time>2026-04-28T07:39:18.864Z</time></trkpt><trkpt lat="39.28305994138793" lon="8.629179990057807"><ele>109.5</ele><time>2026-04-28T07:39:19.864Z</time></trkpt><trkpt lat="39.282984799501634" lon="8.629452691589144"><ele>109.0</ele><time>2026-04-28T07:39:20.864Z</time></trkpt><trkpt lat="39.28290802954146" lon="8.62972719964006"><ele>109.0</ele><time>2026-04-28T07:39:21.864Z</time></trkpt><trkpt lat="39.28283299530602" lon="8.630004099021185"><ele>109.0</ele><time>2026-04-28T07:39:22.864Z</time></trkpt><trkpt lat="39.28275671848188" lon="8.630279999651124"><ele>109.0</ele><time>2026-04-28T07:39:23.864Z</time></trkpt><trkpt lat="39.28268035361816" lon="8.630549987599277"><ele>109.0</ele><time>2026-04-28T07:39:24.864Z</time></trkpt><trkpt lat="39.28260619545882" lon="8.6308285353964"><ele>109.0</ele><time>2026-04-28T07:39:25.864Z</time></trkpt><trkpt lat="39.282531402313616" lon="8.631109173239292"><ele>109.0</ele><time>2026-04-28T07:39:26.864Z</time></trkpt><trkpt lat="39.28245696013505" lon="8.631389143359653"><ele>109.0</ele><time>2026-04-28T07:39:27.864Z</time></trkpt><trkpt lat="39.28237906523095" lon="8.63166465323749"><ele>109.0</ele><time>2026-04-28T07:39:28.864Z</time></trkpt><trkpt lat="39.28230172636153" lon="8.631943155949541"><ele>109.0</ele><time>2026-04-28T07:39:29.864Z</time></trkpt><trkpt lat="39.282224913578894" lon="8.632221809035647"><ele>109.0</ele><time>2026-04-28T07:39:30.864Z</time></trkpt><trkpt lat="39.28214897237879" lon="8.632500491264977"><ele>109.0</ele><time>2026-04-28T07:39:31.864Z</time></trkpt><trkpt lat="39.282071767394264" lon="8.632774073759343"><ele>109.0</ele><time>2026-04-28T07:39:32.864Z</time></trkpt><trkpt lat="39.28199467829331" lon="8.633051110478647"><ele>109.0</ele><time>2026-04-28T07:39:33.864Z</time></trkpt><trkpt lat="39.28191781724342" lon="8.633334428032102"><ele>109.0</ele><time>2026-04-28T07:39:34.864Z</time></trkpt><trkpt lat="39.2818406295629" lon="8.633620141743464"><ele>109.0</ele><time>2026-04-28T07:39:35.864Z</time></trkpt><trkpt lat="39.28176247407833" lon="8.633903998525621"><ele>109.0</ele><time>2026-04-28T07:39:36.864Z</time></trkpt><trkpt lat="39.28168422300294" lon="8.634185570145739"><ele>109.0</ele><time>2026-04-28T07:39:37.864Z</time></trkpt><trkpt lat="39.28161031630622" lon="8.63447104913609"><ele>109.0</ele><time>2026-04-28T07:39:38.864Z</time></trkpt><trkpt lat="39.28153223008694" lon="8.634756503567901"><ele>109.0</ele><time>2026-04-28T07:39:39.864Z</time></trkpt><trkpt lat="39.28145290412933" lon="8.635038735883155"><ele>109.0</ele><time>2026-04-28T07:39:40.864Z</time></trkpt><trkpt lat="39.28137486009526" lon="8.63531602682668"><ele>108.0</ele><time>2026-04-28T07:39:41.864Z</time></trkpt><trkpt lat="39.28129537965151" lon="8.63559755002282"><ele>107.0</ele><time>2026-04-28T07:39:42.864Z</time></trkpt><trkpt lat="39.28122160381085" lon="8.635882095015345"><ele>107.0</ele><time>2026-04-28T07:39:43.864Z</time></trkpt><trkpt lat="39.2811423649422" lon="8.636164995359028"><ele>107.0</ele><time>2026-04-28T07:39:44.864Z</time></trkpt><trkpt lat="39.28106217919408" lon="8.63644751389224"><ele>107.0</ele><time>2026-04-28T07:39:45.864Z</time></trkpt><trkpt lat="39.28098577069726" lon="8.636731882469775"><ele>107.0</ele><time>2026-04-28T07:39:46.864Z</time></trkpt><trkpt lat="39.28090988464943" lon="8.63701036713449"><ele>107.0</ele><time>2026-04-28T07:39:47.864Z</time></trkpt><trkpt lat="39.28083342099971" lon="8.63729044477259"><ele>107.0</ele><time>2026-04-28T07:39:48.864Z</time></trkpt><trkpt lat="39.280757356457954" lon="8.637570192814344"><ele>106.5</ele><time>2026-04-28T07:39:49.864Z</time></trkpt><trkpt lat="39.28068180702219" lon="8.637852846330816"><ele>106.0</ele><time>2026-04-28T07:39:50.864Z</time></trkpt><trkpt lat="39.28060672430702" lon="8.63813859454032"><ele>107.5</ele><time>2026-04-28T07:39:51.864Z</time></trkpt><trkpt lat="39.28052888372141" lon="8.638414089566309"><ele>109.0</ele><time>2026-04-28T07:39:52.864Z</time></trkpt><trkpt lat="39.2804494454573" lon="8.638689842093525"><ele>109.0</ele><time>2026-04-28T07:39:53.864Z</time></trkpt><trkpt lat="39.280374107359115" lon="8.638944744086347"><ele>109.0</ele><time>2026-04-28T07:39:54.864Z</time></trkpt><trkpt lat="39.28030511419204" lon="8.639195992445908"><ele>109.0</ele><time>2026-04-28T07:39:55.864Z</time></trkpt><trkpt lat="39.280241267382365" lon="8.639430189589556"><ele>108.33333333333334</ele><time>2026-04-28T07:39:56.864Z</time></trkpt><trkpt lat="39.28018115747621" lon="8.639654244221198"><ele>107.66666666666666</ele><time>2026-04-28T07:39:57.864Z</time></trkpt><trkpt lat="39.28012310281877" lon="8.639855362897862"><ele>107.0</ele><time>2026-04-28T07:39:58.864Z</time></trkpt><trkpt lat="39.28007731257338" lon="8.640046967155603"><ele>107.0</ele><time>2026-04-28T07:39:59.864Z</time></trkpt><trkpt lat="39.28003418653094" lon="8.640217699021727"><ele>107.0</ele><time>2026-04-28T07:40:00.864Z</time></trkpt><trkpt lat="39.28000139332966" lon="8.640385263168756"><ele>107.0</ele><time>2026-04-28T07:40:01.864Z</time></trkpt><trkpt lat="39.27998272152425" lon="8.6405531358779"><ele>107.0</ele><time>2026-04-28T07:40:02.864Z</time></trkpt><trkpt lat="39.27997517081411" lon="8.640729658489333"><ele>106.75</ele><time>2026-04-28T07:40:03.864Z</time></trkpt><trkpt lat="39.279980941984014" lon="8.640914869006489"><ele>106.5</ele><time>2026-04-28T07:40:04.864Z</time></trkpt><trkpt lat="39.2799944107734" lon="8.641108407174439"><ele>106.25</ele><time>2026-04-28T07:40:05.864Z</time></trkpt><trkpt lat="39.280004601894646" lon="8.641279597957336"><ele>106.0</ele><time>2026-04-28T07:40:06.864Z</time></trkpt><trkpt lat="39.280018028999216" lon="8.641437297521302"><ele>106.4</ele><time>2026-04-28T07:40:07.864Z</time></trkpt><trkpt lat="39.28003472846214" lon="8.641589020248674"><ele>106.8</ele><time>2026-04-28T07:40:08.864Z</time></trkpt><trkpt lat="39.28004612227052" lon="8.641726856844365"><ele>107.20000000000002</ele><time>2026-04-28T07:40:09.864Z</time></trkpt><trkpt lat="39.28005365573039" lon="8.64182529861842"><ele>107.60000000000001</ele><time>2026-04-28T07:40:10.864Z</time></trkpt><trkpt lat="39.28003321481371" lon="8.641918157298377"><ele>108.0</ele><time>2026-04-28T07:40:12.864Z</time></trkpt><trkpt lat="39.27997655788043" lon="8.641982564186117"><ele>108.0</ele><time>2026-04-28T07:40:14.864Z</time></trkpt><trkpt lat="39.27985733811467" lon="8.641988967629494"><ele>108.00000000000001</ele><time>2026-04-28T07:40:16.864Z</time></trkpt><trkpt lat="39.27979584623318" lon="8.641955786609492"><ele>108.00000000000001</ele><time>2026-04-28T07:40:17.864Z</time></trkpt><trkpt lat="39.27972716524564" lon="8.641902182381468"><ele>108.0</ele><time>2026-04-28T07:40:18.864Z</time></trkpt><trkpt lat="39.279654918130284" lon="8.641874776312687"><ele>108.0</ele><time>2026-04-28T07:40:19.864Z</time></trkpt><trkpt lat="39.27955161400256" lon="8.641919547471966"><ele>109.0</ele><time>2026-04-28T07:40:21.864Z</time></trkpt><trkpt lat="39.27947802148111" lon="8.642021794578293"><ele>110.00000000000001</ele><time>2026-04-28T07:40:23.864Z</time></trkpt><trkpt lat="39.279463499643434" lon="8.64215145819537"><ele>111.00000000000001</ele><time>2026-04-28T07:40:25.864Z</time></trkpt><trkpt lat="39.279520159176705" lon="8.642288221511079"><ele>112.0</ele><time>2026-04-28T07:40:27.864Z</time></trkpt><trkpt lat="39.27958285420568" lon="8.642352824139865"><ele>113.0</ele><time>2026-04-28T07:40:28.864Z</time></trkpt><trkpt lat="39.27964674072255" lon="8.642415615716244"><ele>113.0</ele><time>2026-04-28T07:40:29.864Z</time></trkpt><trkpt lat="39.27970349342268" lon="8.642510513667258"><ele>113.00000000000001</ele><time>2026-04-28T07:40:30.864Z</time></trkpt><trkpt lat="39.27973998292421" lon="8.642622641026092"><ele>113.00000000000001</ele><time>2026-04-28T07:40:31.864Z</time></trkpt><trkpt lat="39.27977269433699" lon="8.642754262724466"><ele>113.0</ele><time>2026-04-28T07:40:32.864Z</time></trkpt><trkpt lat="39.27979686555796" lon="8.64290902545468"><ele>113.0</ele><time>2026-04-28T07:40:33.863Z</time></trkpt><trkpt lat="39.27981541011596" lon="8.64308187905651"><ele>112.0</ele><time>2026-04-28T07:40:34.863Z</time></trkpt><trkpt lat="39.27982455801047" lon="8.643270180736057"><ele>111.0</ele><time>2026-04-28T07:40:35.863Z</time></trkpt><trkpt lat="39.27982442093254" lon="8.643458342941544"><ele>110.0</ele><time>2026-04-28T07:40:36.863Z</time></trkpt><trkpt lat="39.27982185155207" lon="8.6436561867813"><ele>109.0</ele><time>2026-04-28T07:40:37.863Z</time></trkpt><trkpt lat="39.27980490882017" lon="8.643853105399304"><ele>109.0</ele><time>2026-04-28T07:40:38.863Z</time></trkpt><trkpt lat="39.27977978874541" lon="8.644054876858293"><ele>109.0</ele><time>2026-04-28T07:40:39.863Z</time></trkpt><trkpt lat="39.27973767193893" lon="8.644256119522048"><ele>109.0</ele><time>2026-04-28T07:40:40.862Z</time></trkpt><trkpt lat="39.27968501891173" lon="8.6444543571232"><ele>110.0</ele><time>2026-04-28T07:40:41.862Z</time></trkpt><trkpt lat="39.27962505823578" lon="8.644644465781449"><ele>111.0</ele><time>2026-04-28T07:40:42.863Z</time></trkpt><trkpt lat="39.27955025722111" lon="8.644832444126402"><ele>112.0</ele><time>2026-04-28T07:40:43.863Z</time></trkpt><trkpt lat="39.27946632376296" lon="8.64501907662685"><ele>112.0</ele><time>2026-04-28T07:40:44.863Z</time></trkpt><trkpt lat="39.27937379884462" lon="8.645205952123797"><ele>112.0</ele><time>2026-04-28T07:40:45.863Z</time></trkpt><trkpt lat="39.27927821975899" lon="8.645389543613652"><ele>112.0</ele><time>2026-04-28T07:40:46.863Z</time></trkpt><trkpt lat="39.27918913789049" lon="8.645570512722143"><ele>111.0</ele><time>2026-04-28T07:40:47.863Z</time></trkpt><trkpt lat="39.27910630928294" lon="8.645749640457703"><ele>110.0</ele><time>2026-04-28T07:40:48.863Z</time></trkpt><trkpt lat="39.279029465338716" lon="8.64593457943957"><ele>109.0</ele><time>2026-04-28T07:40:49.863Z</time></trkpt><trkpt lat="39.27895400776874" lon="8.646105236781327"><ele>109.0</ele><time>2026-04-28T07:40:50.863Z</time></trkpt><trkpt lat="39.2788775789173" lon="8.646267316284368"><ele>109.0</ele><time>2026-04-28T07:40:51.863Z</time></trkpt><trkpt lat="39.27880454560698" lon="8.646436079978455"><ele>109.0</ele><time>2026-04-28T07:40:52.863Z</time></trkpt><trkpt lat="39.278737166568774" lon="8.646610362731819"><ele>109.0</ele><time>2026-04-28T07:40:53.863Z</time></trkpt><trkpt lat="39.278680469521035" lon="8.646793718406592"><ele>108.33333333333334</ele><time>2026-04-28T07:40:54.863Z</time></trkpt><trkpt lat="39.27862591314005" lon="8.646985892220219"><ele>107.66666666666666</ele><time>2026-04-28T07:40:55.863Z</time></trkpt><trkpt lat="39.27858375568006" lon="8.647182913489488"><ele>107.0</ele><time>2026-04-28T07:40:56.863Z</time></trkpt><trkpt lat="39.278546815008546" lon="8.647399406929997"><ele>107.0</ele><time>2026-04-28T07:40:57.863Z</time></trkpt><trkpt lat="39.27851003359725" lon="8.647621417233559"><ele>107.0</ele><time>2026-04-28T07:40:58.863Z</time></trkpt><trkpt lat="39.27847578135516" lon="8.647858197612166"><ele>107.0</ele><time>2026-04-28T07:40:59.863Z</time></trkpt><trkpt lat="39.278442301540565" lon="8.648096568061044"><ele>107.0</ele><time>2026-04-28T07:41:00.863Z</time></trkpt><trkpt lat="39.278407741986285" lon="8.648341897093864"><ele>107.0</ele><time>2026-04-28T07:41:01.863Z</time></trkpt><trkpt lat="39.27837343017941" lon="8.648592010245189"><ele>107.0</ele><time>2026-04-28T07:41:02.863Z</time></trkpt><trkpt lat="39.278336543988736" lon="8.64884416827908"><ele>107.0</ele><time>2026-04-28T07:41:03.863Z</time></trkpt><trkpt lat="39.2782859843512" lon="8.649078520575125"><ele>107.0</ele><time>2026-04-28T07:41:04.863Z</time></trkpt><trkpt lat="39.27827023752234" lon="8.649311141567127"><ele>107.0</ele><time>2026-04-28T07:41:05.863Z</time></trkpt><trkpt lat="39.27824581163766" lon="8.649547268259717"><ele>106.66666666666666</ele><time>2026-04-28T07:41:06.863Z</time></trkpt><trkpt lat="39.27823094451601" lon="8.649788154876049"><ele>106.33333333333334</ele><time>2026-04-28T07:41:07.863Z</time></trkpt><trkpt lat="39.27822294496718" lon="8.650026699672084"><ele>106.0</ele><time>2026-04-28T07:41:08.863Z</time></trkpt><trkpt lat="39.27821673306578" lon="8.650264291402955"><ele>105.33333333333334</ele><time>2026-04-28T07:41:09.863Z</time></trkpt><trkpt lat="39.27821537417024" lon="8.650506130307456"><ele>104.66666666666666</ele><time>2026-04-28T07:41:10.863Z</time></trkpt><trkpt lat="39.2782176982999" lon="8.650755214529845"><ele>104.0</ele><time>2026-04-28T07:41:11.863Z</time></trkpt><trkpt lat="39.27822081700501" lon="8.651001858541322"><ele>104.0</ele><time>2026-04-28T07:41:12.863Z</time></trkpt><trkpt lat="39.2782251108166" lon="8.651241063997409"><ele>104.0</ele><time>2026-04-28T07:41:13.863Z</time></trkpt><trkpt lat="39.2782266689515" lon="8.651476023370842"><ele>104.0</ele><time>2026-04-28T07:41:14.863Z</time></trkpt><trkpt lat="39.27822842421323" lon="8.65170632981356"><ele>104.0</ele><time>2026-04-28T07:41:15.863Z</time></trkpt><trkpt lat="39.27821653393032" lon="8.651933392303823"><ele>104.0</ele><time>2026-04-28T07:41:16.863Z</time></trkpt><trkpt lat="39.27821777375091" lon="8.652160314892312"><ele>104.0</ele><time>2026-04-28T07:41:17.863Z</time></trkpt><trkpt lat="39.278233401749134" lon="8.652377207971385"><ele>104.66666666666666</ele><time>2026-04-28T07:41:18.863Z</time></trkpt><trkpt lat="39.27823042015283" lon="8.65259397807791"><ele>105.33333333333334</ele><time>2026-04-28T07:41:19.863Z</time></trkpt><trkpt lat="39.27822935769748" lon="8.652808212737737"><ele>106.0</ele><time>2026-04-28T07:41:20.863Z</time></trkpt><trkpt lat="39.27822725114836" lon="8.653022195721725"><ele>105.66666666666667</ele><time>2026-04-28T07:41:21.863Z</time></trkpt><trkpt lat="39.27822599675066" lon="8.653236784496375"><ele>105.33333333333334</ele><time>2026-04-28T07:41:22.863Z</time></trkpt><trkpt lat="39.278218880921905" lon="8.65345198456645"><ele>105.0</ele><time>2026-04-28T07:41:23.863Z</time></trkpt><trkpt lat="39.27821362679156" lon="8.653671227692787"><ele>105.0</ele><time>2026-04-28T07:41:24.863Z</time></trkpt><trkpt lat="39.278208102074096" lon="8.65390190575415"><ele>105.0</ele><time>2026-04-28T07:41:25.863Z</time></trkpt><trkpt lat="39.278199393522826" lon="8.654135881930177"><ele>105.0</ele><time>2026-04-28T07:41:26.863Z</time></trkpt><trkpt lat="39.278193736812845" lon="8.654373884714744"><ele>104.33333333333334</ele><time>2026-04-28T07:41:27.863Z</time></trkpt><trkpt lat="39.27818829121792" lon="8.654612851424174"><ele>103.66666666666667</ele><time>2026-04-28T07:41:28.863Z</time></trkpt><trkpt lat="39.27818494194217" lon="8.65485643580079"><ele>103.0</ele><time>2026-04-28T07:41:29.863Z</time></trkpt><trkpt lat="39.278184080925676" lon="8.655109870905896"><ele>102.33333333333334</ele><time>2026-04-28T07:41:30.863Z</time></trkpt><trkpt lat="39.27818083062793" lon="8.655368453321149"><ele>101.66666666666666</ele><time>2026-04-28T07:41:31.863Z</time></trkpt><trkpt lat="39.278178668838486" lon="8.655627924057258"><ele>101.0</ele><time>2026-04-28T07:41:32.863Z</time></trkpt><trkpt lat="39.278176575449244" lon="8.655888379865353"><ele>101.0</ele><time>2026-04-28T07:41:33.863Z</time></trkpt><trkpt lat="39.27817397869256" lon="8.656148607735751"><ele>101.0</ele><time>2026-04-28T07:41:34.863Z</time></trkpt><trkpt lat="39.27816894962953" lon="8.656409299221616"><ele>101.0</ele><time>2026-04-28T07:41:35.863Z</time></trkpt><trkpt lat="39.27816063515421" lon="8.656671268301867"><ele>101.0</ele><time>2026-04-28T07:41:36.863Z</time></trkpt><trkpt lat="39.27815655828702" lon="8.656935087968243"><ele>101.0</ele><time>2026-04-28T07:41:37.863Z</time></trkpt><trkpt lat="39.27815405616855" lon="8.657199837584658"><ele>101.0</ele><time>2026-04-28T07:41:38.863Z</time></trkpt><trkpt lat="39.27814919842099" lon="8.657465949127413"><ele>101.0</ele><time>2026-04-28T07:41:39.863Z</time></trkpt><trkpt lat="39.27814477529133" lon="8.657735783494001"><ele>101.0</ele><time>2026-04-28T07:41:40.863Z</time></trkpt><trkpt lat="39.278138056841236" lon="8.65800720006918"><ele>101.0</ele><time>2026-04-28T07:41:41.863Z</time></trkpt><trkpt lat="39.27813038016434" lon="8.658281001399873"><ele>100.66666666666666</ele><time>2026-04-28T07:41:42.863Z</time></trkpt><trkpt lat="39.27812374455235" lon="8.65855667149681"><ele>100.33333333333334</ele><time>2026-04-28T07:41:43.863Z</time></trkpt><trkpt lat="39.27811869475984" lon="8.658833672515163"><ele>100.0</ele><time>2026-04-28T07:41:44.863Z</time></trkpt><trkpt lat="39.27811266869352" lon="8.659110503561521"><ele>100.0</ele><time>2026-04-28T07:41:45.863Z</time></trkpt><trkpt lat="39.278104448144646" lon="8.659388426801021"><ele>100.0</ele><time>2026-04-28T07:41:46.863Z</time></trkpt><trkpt lat="39.27810066699748" lon="8.659663885904036"><ele>100.0</ele><time>2026-04-28T07:41:47.863Z</time></trkpt><trkpt lat="39.2780951797212" lon="8.659936119898713"><ele>100.66666666666667</ele><time>2026-04-28T07:41:48.863Z</time></trkpt><trkpt lat="39.278087288041355" lon="8.660207656943488"><ele>101.33333333333334</ele><time>2026-04-28T07:41:49.863Z</time></trkpt><trkpt lat="39.27808190424859" lon="8.660477360312115"><ele>102.0</ele><time>2026-04-28T07:41:50.863Z</time></trkpt><trkpt lat="39.278074079072496" lon="8.6607427525476"><ele>103.33333333333334</ele><time>2026-04-28T07:41:51.863Z</time></trkpt><trkpt lat="39.278069323467214" lon="8.661007325605246"><ele>104.66666666666667</ele><time>2026-04-28T07:41:52.863Z</time></trkpt><trkpt lat="39.278063873451174" lon="8.661268167831201"><ele>106.0</ele><time>2026-04-28T07:41:53.863Z</time></trkpt><trkpt lat="39.27806041323649" lon="8.661521060187347"><ele>106.0</ele><time>2026-04-28T07:41:54.863Z</time></trkpt><trkpt lat="39.27806231901983" lon="8.661776535033416"><ele>106.0</ele><time>2026-04-28T07:41:55.863Z</time></trkpt><trkpt lat="39.2780703409538" lon="8.662027538070998"><ele>106.0</ele><time>2026-04-28T07:41:56.863Z</time></trkpt><trkpt lat="39.278091974500555" lon="8.662270335184198"><ele>104.66666666666667</ele><time>2026-04-28T07:41:57.863Z</time></trkpt><trkpt lat="39.278118311739036" lon="8.662495895392006"><ele>103.33333333333334</ele><time>2026-04-28T07:41:58.863Z</time></trkpt><trkpt lat="39.278145911370665" lon="8.662721529983752"><ele>102.0</ele><time>2026-04-28T07:41:59.863Z</time></trkpt><trkpt lat="39.27817877103033" lon="8.662950219659376"><ele>102.0</ele><time>2026-04-28T07:42:00.863Z</time></trkpt><trkpt lat="39.27821822753352" lon="8.663183919996898"><ele>102.0</ele><time>2026-04-28T07:42:01.863Z</time></trkpt><trkpt lat="39.278256812698295" lon="8.663417562746618"><ele>102.0</ele><time>2026-04-28T07:42:02.863Z</time></trkpt><trkpt lat="39.27829443504018" lon="8.66365311567679"><ele>102.33333333333334</ele><time>2026-04-28T07:42:03.863Z</time></trkpt><trkpt lat="39.27832928296939" lon="8.663892965442196"><ele>102.66666666666667</ele><time>2026-04-28T07:42:04.863Z</time></trkpt><trkpt lat="39.27835891621515" lon="8.664134415524003"><ele>103.0</ele><time>2026-04-28T07:42:05.863Z</time></trkpt><trkpt lat="39.27838461600837" lon="8.664377959155956"><ele>102.33333333333334</ele><time>2026-04-28T07:42:06.863Z</time></trkpt><trkpt lat="39.27841080148576" lon="8.66461584718887"><ele>101.66666666666666</ele><time>2026-04-28T07:42:07.863Z</time></trkpt><trkpt lat="39.27843823813008" lon="8.664858208973943"><ele>101.0</ele><time>2026-04-28T07:42:08.863Z</time></trkpt><trkpt lat="39.27846713792085" lon="8.665094461694089"><ele>100.33333333333333</ele><time>2026-04-28T07:42:09.863Z</time></trkpt><trkpt lat="39.278491600859496" lon="8.665326801047861"><ele>99.66666666666666</ele><time>2026-04-28T07:42:10.863Z</time></trkpt><trkpt lat="39.278509683518436" lon="8.665550726455104"><ele>99.0</ele><time>2026-04-28T07:42:11.863Z</time></trkpt><trkpt lat="39.278525921002746" lon="8.665773639893418"><ele>99.0</ele><time>2026-04-28T07:42:12.863Z</time></trkpt><trkpt lat="39.278537922166464" lon="8.665992987973706"><ele>99.0</ele><time>2026-04-28T07:42:13.863Z</time></trkpt><trkpt lat="39.27853073768023" lon="8.666206414969578"><ele>99.0</ele><time>2026-04-28T07:42:14.863Z</time></trkpt><trkpt lat="39.278515765037554" lon="8.666427068689156"><ele>98.66666666666666</ele><time>2026-04-28T07:42:15.863Z</time></trkpt><trkpt lat="39.278488177735824" lon="8.666649489949766"><ele>98.33333333333333</ele><time>2026-04-28T07:42:16.863Z</time></trkpt><trkpt lat="39.278448664323484" lon="8.666872971736145"><ele>98.0</ele><time>2026-04-28T07:42:17.863Z</time></trkpt><trkpt lat="39.27839496788627" lon="8.667102181703834"><ele>97.0</ele><time>2026-04-28T07:42:18.863Z</time></trkpt><trkpt lat="39.27832647507531" lon="8.667329329024955"><ele>96.0</ele><time>2026-04-28T07:42:19.863Z</time></trkpt><trkpt lat="39.27824999117576" lon="8.667541265546149"><ele>95.0</ele><time>2026-04-28T07:42:20.863Z</time></trkpt><trkpt lat="39.27816763988017" lon="8.667735451856478"><ele>95.25</ele><time>2026-04-28T07:42:21.863Z</time></trkpt><trkpt lat="39.27808371570866" lon="8.66791277238706"><ele>95.5</ele><time>2026-04-28T07:42:22.863Z</time></trkpt><trkpt lat="39.278010957929226" lon="8.668070878840648"><ele>95.75</ele><time>2026-04-28T07:42:23.863Z</time></trkpt><trkpt lat="39.27793239044228" lon="8.668192153479131"><ele>96.0</ele><time>2026-04-28T07:42:24.863Z</time></trkpt><trkpt lat="39.277884450465784" lon="8.66831653867513"><ele>96.0</ele><time>2026-04-28T07:42:25.863Z</time></trkpt><trkpt lat="39.27783094577121" lon="8.668409474525221"><ele>96.0</ele><time>2026-04-28T07:42:26.863Z</time></trkpt><trkpt lat="39.27776896564646" lon="8.66848865344762"><ele>96.0</ele><time>2026-04-28T07:42:28.863Z</time></trkpt><trkpt lat="39.27781477109235" lon="8.668430271225963"><ele>96.0</ele><time>2026-04-28T07:42:49.862Z</time></trkpt><trkpt lat="39.277793842205476" lon="8.668303921129137"><ele>96.0</ele><time>2026-04-28T07:42:50.862Z</time></trkpt><trkpt lat="39.27784881401931" lon="8.668193174694874"><ele>96.0</ele><time>2026-04-28T07:42:51.862Z</time></trkpt><trkpt lat="39.277902620394094" lon="8.668089107420565"><ele>96.0</ele><time>2026-04-28T07:42:52.862Z</time></trkpt><trkpt lat="39.27796150150546" lon="8.667975223907513"><ele>96.0</ele><time>2026-04-28T07:42:53.862Z</time></trkpt><trkpt lat="39.27802924253612" lon="8.667846411036313"><ele>96.0</ele><time>2026-04-28T07:42:54.862Z</time></trkpt><trkpt lat="39.278103178752104" lon="8.667718198464962"><ele>96.0</ele><time>2026-04-28T07:42:55.862Z</time></trkpt><trkpt lat="39.27817383159259" lon="8.66758967791002"><ele>95.75</ele><time>2026-04-28T07:42:56.862Z</time></trkpt><trkpt lat="39.27822590105482" lon="8.667444055829913"><ele>95.5</ele><time>2026-04-28T07:42:57.862Z</time></trkpt><trkpt lat="39.27822802454212" lon="8.667306067849335"><ele>95.25</ele><time>2026-04-28T07:42:58.862Z</time></trkpt><trkpt lat="39.27839289392435" lon="8.667197175175787"><ele>95.0</ele><time>2026-04-28T07:42:59.862Z</time></trkpt><trkpt lat="39.27842753049075" lon="8.667066688411685"><ele>95.0</ele><time>2026-04-28T07:43:00.862Z</time></trkpt><trkpt lat="39.278455007900945" lon="8.666958202899119"><ele>95.0</ele><time>2026-04-28T07:43:01.862Z</time></trkpt><trkpt lat="39.27849248260735" lon="8.666838886937846"><ele>95.0</ele><time>2026-04-28T07:43:03.862Z</time></trkpt><trkpt lat="39.27855922322485" lon="8.666859494851316"><ele>95.0</ele><time>2026-04-28T07:43:06.862Z</time></trkpt><trkpt lat="39.27858395166816" lon="8.66694123456531"><ele>95.0</ele><time>2026-04-28T07:43:07.862Z</time></trkpt><trkpt lat="39.27860405773733" lon="8.667030283660687"><ele>95.0</ele><time>2026-04-28T07:43:08.862Z</time></trkpt><trkpt lat="39.27863115816668" lon="8.667138321831816"><ele>95.0</ele><time>2026-04-28T07:43:09.862Z</time></trkpt><trkpt lat="39.27866234173173" lon="8.667260135072015"><ele>95.0</ele><time>2026-04-28T07:43:10.862Z</time></trkpt><trkpt lat="39.27869063198828" lon="8.667394690450479"><ele>95.0</ele><time>2026-04-28T07:43:11.862Z</time></trkpt><trkpt lat="39.2787151526792" lon="8.667528680190543"><ele>95.0</ele><time>2026-04-28T07:43:12.862Z</time></trkpt><trkpt lat="39.278729398208725" lon="8.667675553878615"><ele>95.0</ele><time>2026-04-28T07:43:13.862Z</time></trkpt><trkpt lat="39.278727616553155" lon="8.667832943494707"><ele>95.0</ele><time>2026-04-28T07:43:14.862Z</time></trkpt><trkpt lat="39.27872256249755" lon="8.668003116122883"><ele>95.0</ele><time>2026-04-28T07:43:15.862Z</time></trkpt><trkpt lat="39.27871992821355" lon="8.668187974061157"><ele>95.0</ele><time>2026-04-28T07:43:16.862Z</time></trkpt><trkpt lat="39.27874244863547" lon="8.668364160310375"><ele>95.0</ele><time>2026-04-28T07:43:17.862Z</time></trkpt><trkpt lat="39.27879044949996" lon="8.66853787276862"><ele>95.0</ele><time>2026-04-28T07:43:18.862Z</time></trkpt><trkpt lat="39.27883983988049" lon="8.668710870113138"><ele>95.0</ele><time>2026-04-28T07:43:19.862Z</time></trkpt><trkpt lat="39.27887944238416" lon="8.668892662930581"><ele>95.0</ele><time>2026-04-28T07:43:20.862Z</time></trkpt><trkpt lat="39.27891539621046" lon="8.669075663489927"><ele>95.0</ele><time>2026-04-28T07:43:21.862Z</time></trkpt><trkpt lat="39.27893937015477" lon="8.669267456648488"><ele>94.66666666666667</ele><time>2026-04-28T07:43:22.862Z</time></trkpt><trkpt lat="39.27896786262302" lon="8.669475821478818"><ele>94.33333333333333</ele><time>2026-04-28T07:43:23.862Z</time></trkpt><trkpt lat="39.27895163781817" lon="8.669701446491406"><ele>94.0</ele><time>2026-04-28T07:43:24.862Z</time></trkpt><trkpt lat="39.27894458866702" lon="8.669922314344836"><ele>94.0</ele><time>2026-04-28T07:43:25.862Z</time></trkpt><trkpt lat="39.27893610935895" lon="8.670136792687257"><ele>94.0</ele><time>2026-04-28T07:43:26.862Z</time></trkpt><trkpt lat="39.27892806205761" lon="8.670333357851858"><ele>94.0</ele><time>2026-04-28T07:43:27.862Z</time></trkpt><trkpt lat="39.27892712240016" lon="8.67051507304109"><ele>93.75</ele><time>2026-04-28T07:43:28.862Z</time></trkpt><trkpt lat="39.27893726595861" lon="8.670679096106484"><ele>93.5</ele><time>2026-04-28T07:43:29.862Z</time></trkpt><trkpt lat="39.27897651954953" lon="8.670830739884082"><ele>93.25</ele><time>2026-04-28T07:43:30.862Z</time></trkpt><trkpt lat="39.2790359353129" lon="8.670955275312316"><ele>93.0</ele><time>2026-04-28T07:43:31.862Z</time></trkpt><trkpt lat="39.27910575618343" lon="8.671107177455127"><ele>93.0</ele><time>2026-04-28T07:43:32.862Z</time></trkpt><trkpt lat="39.279175691547664" lon="8.67127213904834"><ele>93.0</ele><time>2026-04-28T07:43:33.862Z</time></trkpt><trkpt lat="39.27924379154952" lon="8.671445152217235"><ele>93.0</ele><time>2026-04-28T07:43:34.862Z</time></trkpt><trkpt lat="39.279285315566156" lon="8.671644003486817"><ele>93.0</ele><time>2026-04-28T07:43:35.862Z</time></trkpt><trkpt lat="39.279333307265496" lon="8.671856696963099"><ele>93.0</ele><time>2026-04-28T07:43:36.862Z</time></trkpt><trkpt lat="39.27937929240942" lon="8.672085688183977"><ele>93.0</ele><time>2026-04-28T07:43:37.862Z</time></trkpt><trkpt lat="39.27942213421202" lon="8.672312054514181"><ele>93.0</ele><time>2026-04-28T07:43:38.862Z</time></trkpt><trkpt lat="39.279462284650975" lon="8.672524200427643"><ele>93.0</ele><time>2026-04-28T07:43:39.862Z</time></trkpt><trkpt lat="39.279491311056425" lon="8.672671019184289"><ele>93.0</ele><time>2026-04-28T07:43:40.862Z</time></trkpt><trkpt lat="39.27953230952007" lon="8.672847397564837"><ele>93.0</ele><time>2026-04-28T07:43:41.862Z</time></trkpt><trkpt lat="39.279587007515" lon="8.673026220793124"><ele>93.0</ele><time>2026-04-28T07:43:42.862Z</time></trkpt><trkpt lat="39.279651575959875" lon="8.673212595418759"><ele>93.0</ele><time>2026-04-28T07:43:43.862Z</time></trkpt><trkpt lat="39.27973445433713" lon="8.67338414996675"><ele>93.0</ele><time>2026-04-28T07:43:44.862Z</time></trkpt><trkpt lat="39.27978711798828" lon="8.67355967717455"><ele>93.5</ele><time>2026-04-28T07:43:45.862Z</time></trkpt><trkpt lat="39.279839784917705" lon="8.673703676963282"><ele>94.0</ele><time>2026-04-28T07:43:46.862Z</time></trkpt><trkpt lat="39.27986938266277" lon="8.673846085441546"><ele>94.5</ele><time>2026-04-28T07:43:47.862Z</time></trkpt><trkpt lat="39.279885116310744" lon="8.67399411237242"><ele>95.0</ele><time>2026-04-28T07:43:48.862Z</time></trkpt><trkpt lat="39.27989666891117" lon="8.674153898842015"><ele>95.0</ele><time>2026-04-28T07:43:49.862Z</time></trkpt><trkpt lat="39.27990567102147" lon="8.674329446137206"><ele>95.0</ele><time>2026-04-28T07:43:50.862Z</time></trkpt><trkpt lat="39.27991043060476" lon="8.674511399597801"><ele>95.0</ele><time>2026-04-28T07:43:51.862Z</time></trkpt><trkpt lat="39.279907906631266" lon="8.674694770488205"><ele>95.0</ele><time>2026-04-28T07:43:52.862Z</time></trkpt><trkpt lat="39.27988707074775" lon="8.674871919045051"><ele>95.0</ele><time>2026-04-28T07:43:53.862Z</time></trkpt><trkpt lat="39.27984785083516" lon="8.67504421933457"><ele>95.0</ele><time>2026-04-28T07:43:54.862Z</time></trkpt><trkpt lat="39.27979953999802" lon="8.67520853906265"><ele>95.0</ele><time>2026-04-28T07:43:55.862Z</time></trkpt><trkpt lat="39.27974804723324" lon="8.675365707954084"><ele>95.0</ele><time>2026-04-28T07:43:56.862Z</time></trkpt><trkpt lat="39.27970675025729" lon="8.675534253839778"><ele>95.5</ele><time>2026-04-28T07:43:57.862Z</time></trkpt><trkpt lat="39.27964451709161" lon="8.675686134950528"><ele>96.0</ele><time>2026-04-28T07:43:58.862Z</time></trkpt><trkpt lat="39.27960864035866" lon="8.675870068529074"><ele>96.5</ele><time>2026-04-28T07:43:59.862Z</time></trkpt><trkpt lat="39.27958245752276" lon="8.676055932416029"><ele>97.0</ele><time>2026-04-28T07:44:00.862Z</time></trkpt><trkpt lat="39.279557260199844" lon="8.676247050642875"><ele>97.0</ele><time>2026-04-28T07:44:01.862Z</time></trkpt><trkpt lat="39.27953805044645" lon="8.676439387244466"><ele>97.0</ele><time>2026-04-28T07:44:02.862Z</time></trkpt><trkpt lat="39.27951776454769" lon="8.676637294458846"><ele>97.0</ele><time>2026-04-28T07:44:03.862Z</time></trkpt><trkpt lat="39.27949942026031" lon="8.676828400169688"><ele>96.33333333333334</ele><time>2026-04-28T07:44:04.862Z</time></trkpt><trkpt lat="39.279482495700684" lon="8.677022055774817"><ele>95.66666666666667</ele><time>2026-04-28T07:44:05.862Z</time></trkpt><trkpt lat="39.27946905172203" lon="8.677217653674436"><ele>95.0</ele><time>2026-04-28T07:44:06.862Z</time></trkpt><trkpt lat="39.27945854091269" lon="8.67741771726473"><ele>95.0</ele><time>2026-04-28T07:44:07.862Z</time></trkpt><trkpt lat="39.279453258586464" lon="8.6776193822424"><ele>95.0</ele><time>2026-04-28T07:44:08.862Z</time></trkpt><trkpt lat="39.27944837426945" lon="8.677816165318625"><ele>95.0</ele><time>2026-04-28T07:44:09.862Z</time></trkpt><trkpt lat="39.27944244289504" lon="8.678008329749085"><ele>95.0</ele><time>2026-04-28T07:44:10.862Z</time></trkpt><trkpt lat="39.27943994288787" lon="8.678213198918927"><ele>95.0</ele><time>2026-04-28T07:44:11.862Z</time></trkpt><trkpt lat="39.27944109605879" lon="8.67842061107939"><ele>95.0</ele><time>2026-04-28T07:44:12.862Z</time></trkpt><trkpt lat="39.279451639275585" lon="8.678619071394117"><ele>95.0</ele><time>2026-04-28T07:44:13.862Z</time></trkpt><trkpt lat="39.279473369002446" lon="8.678823065370377"><ele>95.0</ele><time>2026-04-28T07:44:14.862Z</time></trkpt><trkpt lat="39.27950394537984" lon="8.679024597158387"><ele>95.0</ele><time>2026-04-28T07:44:15.862Z</time></trkpt><trkpt lat="39.279531503354235" lon="8.679222500509818"><ele>95.0</ele><time>2026-04-28T07:44:16.862Z</time></trkpt><trkpt lat="39.27956212142399" lon="8.67942737852876"><ele>95.0</ele><time>2026-04-28T07:44:17.862Z</time></trkpt><trkpt lat="39.27958920478257" lon="8.679630944938854"><ele>95.0</ele><time>2026-04-28T07:44:18.862Z</time></trkpt><trkpt lat="39.279609268949606" lon="8.679820563905995"><ele>94.75</ele><time>2026-04-28T07:44:19.862Z</time></trkpt><trkpt lat="39.27962232577186" lon="8.679997314534184"><ele>94.5</ele><time>2026-04-28T07:44:20.862Z</time></trkpt><trkpt lat="39.27963218010706" lon="8.680172160057152"><ele>94.25</ele><time>2026-04-28T07:44:21.862Z</time></trkpt><trkpt lat="39.27964366369818" lon="8.680339871134668"><ele>94.0</ele><time>2026-04-28T07:44:22.862Z</time></trkpt><trkpt lat="39.27966011070616" lon="8.680494490024094"><ele>94.0</ele><time>2026-04-28T07:44:23.862Z</time></trkpt><trkpt lat="39.2796799560538" lon="8.68065047992691"><ele>94.0</ele><time>2026-04-28T07:44:24.862Z</time></trkpt><trkpt lat="39.27970769310952" lon="8.68081707182958"><ele>94.0</ele><time>2026-04-28T07:44:25.862Z</time></trkpt><trkpt lat="39.279733679372825" lon="8.680990770603282"><ele>94.0</ele><time>2026-04-28T07:44:26.862Z</time></trkpt><trkpt lat="39.27976320641939" lon="8.681165531888867"><ele>93.25</ele><time>2026-04-28T07:44:27.862Z</time></trkpt><trkpt lat="39.279795880568464" lon="8.681343194774355"><ele>92.5</ele><time>2026-04-28T07:44:28.862Z</time></trkpt><trkpt lat="39.27982921377209" lon="8.681522333239052"><ele>91.75</ele><time>2026-04-28T07:44:29.862Z</time></trkpt><trkpt lat="39.27986072721015" lon="8.681697952038855"><ele>91.0</ele><time>2026-04-28T07:44:30.862Z</time></trkpt><trkpt lat="39.27989200695916" lon="8.68186584552492"><ele>90.75</ele><time>2026-04-28T07:44:31.862Z</time></trkpt><trkpt lat="39.27992328337173" lon="8.682037373300858"><ele>90.5</ele><time>2026-04-28T07:44:32.862Z</time></trkpt><trkpt lat="39.279938592168044" lon="8.682204876132296"><ele>90.25</ele><time>2026-04-28T07:44:33.862Z</time></trkpt><trkpt lat="39.27996864528372" lon="8.68236543722107"><ele>90.0</ele><time>2026-04-28T07:44:34.862Z</time></trkpt><trkpt lat="39.279993919807886" lon="8.682534772583972"><ele>90.0</ele><time>2026-04-28T07:44:35.862Z</time></trkpt><trkpt lat="39.280012893528855" lon="8.682703638172901"><ele>90.0</ele><time>2026-04-28T07:44:36.862Z</time></trkpt><trkpt lat="39.28002331599844" lon="8.682868618026006"><ele>90.0</ele><time>2026-04-28T07:44:37.862Z</time></trkpt><trkpt lat="39.280032483904854" lon="8.683039279583358"><ele>90.0</ele><time>2026-04-28T07:44:38.862Z</time></trkpt><trkpt lat="39.28005005375852" lon="8.683215799797537"><ele>89.75</ele><time>2026-04-28T07:44:39.862Z</time></trkpt><trkpt lat="39.28005407334667" lon="8.68339102522284"><ele>89.5</ele><time>2026-04-28T07:44:40.862Z</time></trkpt><trkpt lat="39.280076712613635" lon="8.68356443193632"><ele>89.25</ele><time>2026-04-28T07:44:41.862Z</time></trkpt><trkpt lat="39.28010615900562" lon="8.683736472018639"><ele>89.0</ele><time>2026-04-28T07:44:42.862Z</time></trkpt><trkpt lat="39.2801388317927" lon="8.683905068009084"><ele>88.75</ele><time>2026-04-28T07:44:43.862Z</time></trkpt><trkpt lat="39.28016424166962" lon="8.684073834804087"><ele>88.5</ele><time>2026-04-28T07:44:44.862Z</time></trkpt><trkpt lat="39.2801852416838" lon="8.684239879880666"><ele>88.25</ele><time>2026-04-28T07:44:45.861Z</time></trkpt><trkpt lat="39.28021259949002" lon="8.68441534621756"><ele>88.0</ele><time>2026-04-28T07:44:46.861Z</time></trkpt><trkpt lat="39.28024094883798" lon="8.68459390736694"><ele>88.0</ele><time>2026-04-28T07:44:47.861Z</time></trkpt><trkpt lat="39.280265131535536" lon="8.68477157186112"><ele>88.0</ele><time>2026-04-28T07:44:48.861Z</time></trkpt><trkpt lat="39.28028280305158" lon="8.684944577692217"><ele>88.0</ele><time>2026-04-28T07:44:49.861Z</time></trkpt><trkpt lat="39.28030022280714" lon="8.685124698694478"><ele>88.0</ele><time>2026-04-28T07:44:50.861Z</time></trkpt><trkpt lat="39.28029497792185" lon="8.685295325850246"><ele>88.0</ele><time>2026-04-28T07:44:51.861Z</time></trkpt><trkpt lat="39.28029955326635" lon="8.685472969168051"><ele>88.0</ele><time>2026-04-28T07:44:52.861Z</time></trkpt><trkpt lat="39.28029853070003" lon="8.685645471814354"><ele>88.0</ele><time>2026-04-28T07:44:53.861Z</time></trkpt><trkpt lat="39.2802851660153" lon="8.685813180038064"><ele>88.0</ele><time>2026-04-28T07:44:54.86Z</time></trkpt><trkpt lat="39.28026209388569" lon="8.685978791448656"><ele>88.25</ele><time>2026-04-28T07:44:55.861Z</time></trkpt><trkpt lat="39.28023132965268" lon="8.68615532501206"><ele>88.5</ele><time>2026-04-28T07:44:56.861Z</time></trkpt><trkpt lat="39.28020098182092" lon="8.686344497269632"><ele>88.75</ele><time>2026-04-28T07:44:57.861Z</time></trkpt><trkpt lat="39.280168707776156" lon="8.686537945728135"><ele>89.0</ele><time>2026-04-28T07:44:58.861Z</time></trkpt><trkpt lat="39.2801336742452" lon="8.686729345722451"><ele>89.0</ele><time>2026-04-28T07:44:59.861Z</time></trkpt><trkpt lat="39.28011009377928" lon="8.686908520793835"><ele>89.0</ele><time>2026-04-28T07:45:00.861Z</time></trkpt><trkpt lat="39.28008500149387" lon="8.68707489105493"><ele>89.0</ele><time>2026-04-28T07:45:01.861Z</time></trkpt><trkpt lat="39.28005925563745" lon="8.68723069836849"><ele>89.0</ele><time>2026-04-28T07:45:02.861Z</time></trkpt><trkpt lat="39.28003463175747" lon="8.687360625662665"><ele>89.0</ele><time>2026-04-28T07:45:03.861Z</time></trkpt><trkpt lat="39.28000653641588" lon="8.687459931220939"><ele>89.0</ele><time>2026-04-28T07:45:04.861Z</time></trkpt><trkpt lat="39.279963950683644" lon="8.687540429411637"><ele>89.0</ele><time>2026-04-28T07:45:05.861Z</time></trkpt><trkpt lat="39.27991783434762" lon="8.68764766964503"><ele>89.0</ele><time>2026-04-28T07:45:06.86Z</time></trkpt><trkpt lat="39.279968335008654" lon="8.68782705372291"><ele>89.0</ele><time>2026-04-28T07:45:07.86Z</time></trkpt><trkpt lat="39.27996568593517" lon="8.687979250411358"><ele>88.6</ele><time>2026-04-28T07:45:08.86Z</time></trkpt><trkpt lat="39.27996617921407" lon="8.68812743078739"><ele>88.2</ele><time>2026-04-28T07:45:09.86Z</time></trkpt><trkpt lat="39.27996686030513" lon="8.688285178991542"><ele>87.8</ele><time>2026-04-28T07:45:10.86Z</time></trkpt><trkpt lat="39.27996578593133" lon="8.68843031815878"><ele>87.39999999999999</ele><time>2026-04-28T07:45:11.86Z</time></trkpt><trkpt lat="39.27995432196515" lon="8.688555333188251"><ele>87.0</ele><time>2026-04-28T07:45:12.86Z</time></trkpt><trkpt lat="39.27994718942674" lon="8.68867479563068"><ele>87.19999999999999</ele><time>2026-04-28T07:45:13.86Z</time></trkpt><trkpt lat="39.27992927890966" lon="8.688775757276165"><ele>87.4</ele><time>2026-04-28T07:45:14.86Z</time></trkpt><trkpt lat="39.2798933632181" lon="8.688874820981829"><ele>87.6</ele><time>2026-04-28T07:45:15.86Z</time></trkpt><trkpt lat="39.27985055614301" lon="8.688980489882033"><ele>87.80000000000001</ele><time>2026-04-28T07:45:16.86Z</time></trkpt><trkpt lat="39.27979939798696" lon="8.689096457319346"><ele>88.0</ele><time>2026-04-28T07:45:17.86Z</time></trkpt><trkpt lat="39.27974868615011" lon="8.689220167219064"><ele>88.0</ele><time>2026-04-28T07:45:18.86Z</time></trkpt><trkpt lat="39.2796946298966" lon="8.689344376404298"><ele>88.0</ele><time>2026-04-28T07:45:19.86Z</time></trkpt><trkpt lat="39.279645229174875" lon="8.689479159765783"><ele>88.0</ele><time>2026-04-28T07:45:20.86Z</time></trkpt><trkpt lat="39.279595231142146" lon="8.6896413023214"><ele>88.0</ele><time>2026-04-28T07:45:21.86Z</time></trkpt><trkpt lat="39.27953925129441" lon="8.689828267759264"><ele>87.75</ele><time>2026-04-28T07:45:22.86Z</time></trkpt><trkpt lat="39.279489522699166" lon="8.690031914799405"><ele>87.5</ele><time>2026-04-28T07:45:23.86Z</time></trkpt><trkpt lat="39.27959708526427" lon="8.689942462460392"><ele>87.25</ele><time>2026-04-28T07:45:24.86Z</time></trkpt><trkpt lat="39.27957838131944" lon="8.69007264853036"><ele>87.0</ele><time>2026-04-28T07:45:25.86Z</time></trkpt><trkpt lat="39.27956054708601" lon="8.690210791048404"><ele>86.83333333333333</ele><time>2026-04-28T07:45:26.86Z</time></trkpt><trkpt lat="39.27954637311797" lon="8.690323288810706"><ele>86.66666666666667</ele><time>2026-04-28T07:45:27.86Z</time></trkpt><trkpt lat="39.279538164016465" lon="8.690426763479442"><ele>86.5</ele><time>2026-04-28T07:45:28.86Z</time></trkpt><trkpt lat="39.2795291605774" lon="8.690524348516622"><ele>86.33333333333334</ele><time>2026-04-28T07:45:29.86Z</time></trkpt><trkpt lat="39.27952508476075" lon="8.690627829643981"><ele>86.16666666666667</ele><time>2026-04-28T07:45:30.86Z</time></trkpt><trkpt lat="39.27952417201904" lon="8.69075306225224"><ele>86.0</ele><time>2026-04-28T07:45:31.86Z</time></trkpt><trkpt lat="39.27952345448923" lon="8.69087904378569"><ele>86.0</ele><time>2026-04-28T07:45:32.86Z</time></trkpt><trkpt lat="39.27952905498135" lon="8.691015470602698"><ele>86.0</ele><time>2026-04-28T07:45:33.86Z</time></trkpt><trkpt lat="39.27953412045902" lon="8.691159748657235"><ele>86.0</ele><time>2026-04-28T07:45:34.86Z</time></trkpt><trkpt lat="39.27954516178632" lon="8.6913079737196"><ele>86.0</ele><time>2026-04-28T07:45:35.86Z</time></trkpt><trkpt lat="39.27956301449635" lon="8.691457980885396"><ele>86.0</ele><time>2026-04-28T07:45:36.86Z</time></trkpt><trkpt lat="39.27958323071611" lon="8.691607099307284"><ele>86.0</ele><time>2026-04-28T07:45:37.86Z</time></trkpt><trkpt lat="39.27959879968986" lon="8.691754503246832"><ele>86.0</ele><time>2026-04-28T07:45:38.86Z</time></trkpt><trkpt lat="39.27961576958163" lon="8.691897909138918"><ele>86.0</ele><time>2026-04-28T07:45:39.86Z</time></trkpt><trkpt lat="39.27963722544242" lon="8.6920357837599"><ele>86.0</ele><time>2026-04-28T07:45:40.86Z</time></trkpt><trkpt lat="39.27965562194802" lon="8.692173368971597"><ele>86.0</ele><time>2026-04-28T07:45:41.86Z</time></trkpt><trkpt lat="39.279672470579165" lon="8.69231847654924"><ele>86.0</ele><time>2026-04-28T07:45:42.86Z</time></trkpt><trkpt lat="39.27968434725498" lon="8.692462099135295"><ele>86.0</ele><time>2026-04-28T07:45:43.86Z</time></trkpt><trkpt lat="39.279701515933084" lon="8.69260714798367"><ele>86.0</ele><time>2026-04-28T07:45:44.86Z</time></trkpt><trkpt lat="39.27972055234027" lon="8.692749010598662"><ele>85.8</ele><time>2026-04-28T07:45:45.86Z</time></trkpt><trkpt lat="39.279729559029725" lon="8.692894852099919"><ele>85.6</ele><time>2026-04-28T07:45:46.86Z</time></trkpt><trkpt lat="39.279740783755095" lon="8.693043286716804"><ele>85.4</ele><time>2026-04-28T07:45:47.86Z</time></trkpt><trkpt lat="39.27974150121793" lon="8.69318166465639"><ele>85.2</ele><time>2026-04-28T07:45:48.86Z</time></trkpt><trkpt lat="39.27974361284486" lon="8.693305418995852"><ele>85.0</ele><time>2026-04-28T07:45:49.86Z</time></trkpt><trkpt lat="39.27975290639913" lon="8.693422738828989"><ele>85.0</ele><time>2026-04-28T07:45:50.86Z</time></trkpt><trkpt lat="39.27975691272469" lon="8.693568794159603"><ele>85.0</ele><time>2026-04-28T07:45:51.86Z</time></trkpt><trkpt lat="39.27975641718985" lon="8.69371456870469"><ele>85.0</ele><time>2026-04-28T07:45:52.86Z</time></trkpt><trkpt lat="39.279744188781095" lon="8.693847424036305"><ele>85.0</ele><time>2026-04-28T07:45:53.86Z</time></trkpt><trkpt lat="39.279739870287464" lon="8.693964003217827"><ele>85.0</ele><time>2026-04-28T07:45:54.86Z</time></trkpt><trkpt lat="39.27973029700627" lon="8.694067698919481"><ele>84.8</ele><time>2026-04-28T07:45:55.86Z</time></trkpt><trkpt lat="39.27972543159316" lon="8.694174422707237"><ele>84.6</ele><time>2026-04-28T07:45:56.86Z</time></trkpt><trkpt lat="39.27970209007254" lon="8.694286188607027"><ele>84.4</ele><time>2026-04-28T07:45:57.86Z</time></trkpt><trkpt lat="39.27968843130116" lon="8.694409385052184"><ele>84.2</ele><time>2026-04-28T07:45:58.86Z</time></trkpt><trkpt lat="39.279690667566705" lon="8.694552774872653"><ele>84.0</ele><time>2026-04-28T07:45:59.86Z</time></trkpt><trkpt lat="39.279696151469494" lon="8.694703770528385"><ele>84.0</ele><time>2026-04-28T07:46:00.86Z</time></trkpt><trkpt lat="39.27969394907681" lon="8.694842955811355"><ele>84.0</ele><time>2026-04-28T07:46:01.86Z</time></trkpt><trkpt lat="39.27969136735918" lon="8.694990660988822"><ele>84.0</ele><time>2026-04-28T07:46:02.86Z</time></trkpt><trkpt lat="39.27966472241394" lon="8.695121252150686"><ele>84.0</ele><time>2026-04-28T07:46:03.86Z</time></trkpt><trkpt lat="39.279645803050116" lon="8.695261375470787"><ele>84.0</ele><time>2026-04-28T07:46:04.86Z</time></trkpt><trkpt lat="39.279631143560415" lon="8.695401588066115"><ele>84.0</ele><time>2026-04-28T07:46:05.86Z</time></trkpt><trkpt lat="39.279626040009475" lon="8.6955186986471"><ele>84.0</ele><time>2026-04-28T07:46:06.86Z</time></trkpt><trkpt lat="39.279614424811" lon="8.69561547664748"><ele>84.0</ele><time>2026-04-28T07:46:07.86Z</time></trkpt><trkpt lat="39.27962192101357" lon="8.695709213865152"><ele>84.0</ele><time>2026-04-28T07:46:08.86Z</time></trkpt><trkpt lat="39.279634581310425" lon="8.695828229433497"><ele>84.0</ele><time>2026-04-28T07:46:09.86Z</time></trkpt><trkpt lat="39.279660896005026" lon="8.695970052029127"><ele>84.0</ele><time>2026-04-28T07:46:10.86Z</time></trkpt><trkpt lat="39.27969247432377" lon="8.696115061113264"><ele>84.0</ele><time>2026-04-28T07:46:11.86Z</time></trkpt><trkpt lat="39.2797198207257" lon="8.696253411201441"><ele>84.0</ele><time>2026-04-28T07:46:12.86Z</time></trkpt><trkpt lat="39.27974072527139" lon="8.696377174168207"><ele>84.0</ele><time>2026-04-28T07:46:13.86Z</time></trkpt><trkpt lat="39.27977192211976" lon="8.696497630080707"><ele>84.0</ele><time>2026-04-28T07:46:14.86Z</time></trkpt><trkpt lat="39.27979374938189" lon="8.696627615002079"><ele>84.0</ele><time>2026-04-28T07:46:15.86Z</time></trkpt><trkpt lat="39.279807865928575" lon="8.696760460101915"><ele>84.0</ele><time>2026-04-28T07:46:16.86Z</time></trkpt><trkpt lat="39.27982457642716" lon="8.696900249945509"><ele>84.0</ele><time>2026-04-28T07:46:17.86Z</time></trkpt><trkpt lat="39.27986468881199" lon="8.697040666647853"><ele>84.0</ele><time>2026-04-28T07:46:18.86Z</time></trkpt><trkpt lat="39.27988552388191" lon="8.697171770744925"><ele>84.0</ele><time>2026-04-28T07:46:19.86Z</time></trkpt><trkpt lat="39.27991244726301" lon="8.697310007353048"><ele>84.0</ele><time>2026-04-28T07:46:20.86Z</time></trkpt><trkpt lat="39.279931768783406" lon="8.697435305785758"><ele>84.2</ele><time>2026-04-28T07:46:21.86Z</time></trkpt><trkpt lat="39.279953566787896" lon="8.69757452925719"><ele>84.4</ele><time>2026-04-28T07:46:22.86Z</time></trkpt><trkpt lat="39.27997085781025" lon="8.697709976308849"><ele>84.6</ele><time>2026-04-28T07:46:23.86Z</time></trkpt><trkpt lat="39.279996011494454" lon="8.69783483678039"><ele>84.8</ele><time>2026-04-28T07:46:24.86Z</time></trkpt><trkpt lat="39.28000830947187" lon="8.697940515728055"><ele>85.0</ele><time>2026-04-28T07:46:25.86Z</time></trkpt><trkpt lat="39.28001534370108" lon="8.698033936493776"><ele>85.0</ele><time>2026-04-28T07:46:26.86Z</time></trkpt><trkpt lat="39.28000299175287" lon="8.698129980021728"><ele>85.0</ele><time>2026-04-28T07:46:27.86Z</time></trkpt><trkpt lat="39.27999281763704" lon="8.698276146791931"><ele>85.0</ele><time>2026-04-28T07:46:29.86Z</time></trkpt><trkpt lat="39.279987035910416" lon="8.698377001206028"><ele>85.0</ele><time>2026-04-28T07:46:31.86Z</time></trkpt><trkpt lat="39.28000719248242" lon="8.698480204178763"><ele>85.0</ele><time>2026-04-28T07:46:33.86Z</time></trkpt><trkpt lat="39.28000887368395" lon="8.698646983736772"><ele>85.0</ele><time>2026-04-28T07:46:35.86Z</time></trkpt><trkpt lat="39.28000344995303" lon="8.698740296604596"><ele>85.0</ele><time>2026-04-28T07:46:36.86Z</time></trkpt><trkpt lat="39.28001321676505" lon="8.698835303854853"><ele>85.0</ele><time>2026-04-28T07:46:37.86Z</time></trkpt><trkpt lat="39.280021752338264" lon="8.698923209127562"><ele>85.0</ele><time>2026-04-28T07:46:38.86Z</time></trkpt><trkpt lat="39.28003569803568" lon="8.699069732837655"><ele>85.0</ele><time>2026-04-28T07:46:40.86Z</time></trkpt><trkpt lat="39.2800400401306" lon="8.699160464766749"><ele>85.0</ele><time>2026-04-28T07:46:41.86Z</time></trkpt><trkpt lat="39.280045434580785" lon="8.699254229015747"><ele>85.0</ele><time>2026-04-28T07:46:42.86Z</time></trkpt><trkpt lat="39.28005289747303" lon="8.699343765736517"><ele>85.0</ele><time>2026-04-28T07:46:43.86Z</time></trkpt><trkpt lat="39.280061432091586" lon="8.699425795660476"><ele>85.0</ele><time>2026-04-28T07:46:44.86Z</time></trkpt><trkpt lat="39.280058534010244" lon="8.699571674623332"><ele>85.0</ele><time>2026-04-28T07:46:46.86Z</time></trkpt><trkpt lat="39.2800550343698" lon="8.699657485519092"><ele>85.0</ele><time>2026-04-28T07:46:47.86Z</time></trkpt><trkpt lat="39.28005637351904" lon="8.6997563563564"><ele>85.0</ele><time>2026-04-28T07:46:48.86Z</time></trkpt><trkpt lat="39.28005478647531" lon="8.699854116161788"><ele>84.71428571428572</ele><time>2026-04-28T07:46:49.86Z</time></trkpt><trkpt lat="39.28005207125099" lon="8.699949843561797"><ele>84.42857142857142</ele><time>2026-04-28T07:46:50.86Z</time></trkpt><trkpt lat="39.28004427244139" lon="8.700050805068063"><ele>84.14285714285714</ele><time>2026-04-28T07:46:51.86Z</time></trkpt><trkpt lat="39.28004004026064" lon="8.700136157012892"><ele>83.85714285714286</ele><time>2026-04-28T07:46:52.859Z</time></trkpt><trkpt lat="39.280040089337874" lon="8.700225885170642"><ele>83.57142857142858</ele><time>2026-04-28T07:46:53.859Z</time></trkpt><trkpt lat="39.28003577991383" lon="8.700316244891285"><ele>83.28571428571428</ele><time>2026-04-28T07:46:54.86Z</time></trkpt><trkpt lat="39.280035641794235" lon="8.700404180514232"><ele>83.0</ele><time>2026-04-28T07:46:55.86Z</time></trkpt><trkpt lat="39.2800307322921" lon="8.700497474052135"><ele>83.0</ele><time>2026-04-28T07:46:56.86Z</time></trkpt><trkpt lat="39.28002512227994" lon="8.700579673389633"><ele>83.0</ele><time>2026-04-28T07:46:57.86Z</time></trkpt><trkpt lat="39.28001517104122" lon="8.700679692378023"><ele>83.0</ele><time>2026-04-28T07:46:58.86Z</time></trkpt><trkpt lat="39.280014833937386" lon="8.700769069746231"><ele>83.0</ele><time>2026-04-28T07:46:59.86Z</time></trkpt><trkpt lat="39.280011636330485" lon="8.70087056769326"><ele>83.0</ele><time>2026-04-28T07:47:00.86Z</time></trkpt><trkpt lat="39.28001753307834" lon="8.70097209034629"><ele>83.0</ele><time>2026-04-28T07:47:01.86Z</time></trkpt><trkpt lat="39.28002176018751" lon="8.701072941525855"><ele>83.0</ele><time>2026-04-28T07:47:02.86Z</time></trkpt><trkpt lat="39.28002520353126" lon="8.701171555974398"><ele>83.0</ele><time>2026-04-28T07:47:03.86Z</time></trkpt><trkpt lat="39.280033204071565" lon="8.70126585130435"><ele>83.0</ele><time>2026-04-28T07:47:04.859Z</time></trkpt><trkpt lat="39.280048042849344" lon="8.7013584747494"><ele>83.0</ele><time>2026-04-28T07:47:05.859Z</time></trkpt><trkpt lat="39.28006338365316" lon="8.701461580639672"><ele>83.0</ele><time>2026-04-28T07:47:06.859Z</time></trkpt><trkpt lat="39.280073300616024" lon="8.701542542245774"><ele>83.0</ele><time>2026-04-28T07:47:07.859Z</time></trkpt><trkpt lat="39.280096349769295" lon="8.701704968041446"><ele>83.0</ele><time>2026-04-28T07:47:09.859Z</time></trkpt><trkpt lat="39.28009987662561" lon="8.701797841544717"><ele>83.0</ele><time>2026-04-28T07:47:10.859Z</time></trkpt><trkpt lat="39.28011285603021" lon="8.701902174257585"><ele>83.0</ele><time>2026-04-28T07:47:11.859Z</time></trkpt><trkpt lat="39.2801238352325" lon="8.70200315758288"><ele>83.0</ele><time>2026-04-28T07:47:12.859Z</time></trkpt><trkpt lat="39.28013374461316" lon="8.702111384260139"><ele>83.0</ele><time>2026-04-28T07:47:13.859Z</time></trkpt><trkpt lat="39.28014498785911" lon="8.702213579107559"><ele>83.0</ele><time>2026-04-28T07:47:14.859Z</time></trkpt><trkpt lat="39.280151815603624" lon="8.70231495686973"><ele>83.0</ele><time>2026-04-28T07:47:15.859Z</time></trkpt><trkpt lat="39.28016385088609" lon="8.70241246257562"><ele>82.60000000000001</ele><time>2026-04-28T07:47:16.859Z</time></trkpt><trkpt lat="39.28017589104809" lon="8.70251729211277"><ele>82.2</ele><time>2026-04-28T07:47:17.859Z</time></trkpt><trkpt lat="39.28018424021552" lon="8.702622402768428"><ele>81.8</ele><time>2026-04-28T07:47:18.859Z</time></trkpt><trkpt lat="39.28019705893204" lon="8.702724083867812"><ele>81.4</ele><time>2026-04-28T07:47:19.859Z</time></trkpt><trkpt lat="39.28019744385595" lon="8.702825494472844"><ele>81.0</ele><time>2026-04-28T07:47:20.859Z</time></trkpt><trkpt lat="39.280223777006576" lon="8.702989459876688"><ele>81.0</ele><time>2026-04-28T07:47:22.859Z</time></trkpt><trkpt lat="39.28024800026355" lon="8.703090387361037"><ele>81.0</ele><time>2026-04-28T07:47:23.859Z</time></trkpt><trkpt lat="39.28025516028839" lon="8.703190819623646"><ele>81.0</ele><time>2026-04-28T07:47:24.859Z</time></trkpt><trkpt lat="39.28025344368346" lon="8.703298013760465"><ele>81.0</ele><time>2026-04-28T07:47:25.859Z</time></trkpt><trkpt lat="39.28025295693286" lon="8.703398784604218"><ele>81.0</ele><time>2026-04-28T07:47:26.859Z</time></trkpt><trkpt lat="39.280238240207005" lon="8.703496311833371"><ele>81.0</ele><time>2026-04-28T07:47:27.859Z</time></trkpt><trkpt lat="39.280225351834495" lon="8.703600334642159"><ele>80.83333333333333</ele><time>2026-04-28T07:47:28.859Z</time></trkpt><trkpt lat="39.28021556217849" lon="8.703703272809484"><ele>80.66666666666667</ele><time>2026-04-28T07:47:29.859Z</time></trkpt><trkpt lat="39.28020252113424" lon="8.703815957811168"><ele>80.5</ele><time>2026-04-28T07:47:30.859Z</time></trkpt><trkpt lat="39.28019584521306" lon="8.703925947395767"><ele>80.33333333333334</ele><time>2026-04-28T07:47:31.859Z</time></trkpt><trkpt lat="39.280184202725984" lon="8.70404018856713"><ele>80.16666666666667</ele><time>2026-04-28T07:47:32.859Z</time></trkpt><trkpt lat="39.28017570521208" lon="8.704158208409071"><ele>80.0</ele><time>2026-04-28T07:47:33.859Z</time></trkpt><trkpt lat="39.28016677153773" lon="8.704270112306983"><ele>80.0</ele><time>2026-04-28T07:47:34.859Z</time></trkpt><trkpt lat="39.280156355544804" lon="8.704390071318208"><ele>80.0</ele><time>2026-04-28T07:47:35.859Z</time></trkpt><trkpt lat="39.280144537790406" lon="8.704511349030025"><ele>80.0</ele><time>2026-04-28T07:47:36.859Z</time></trkpt><trkpt lat="39.2801327373748" lon="8.704634749372358"><ele>80.0</ele><time>2026-04-28T07:47:37.859Z</time></trkpt><trkpt lat="39.28012188114137" lon="8.704760765003504"><ele>80.0</ele><time>2026-04-28T07:47:38.859Z</time></trkpt><trkpt lat="39.280107703368195" lon="8.704884711122345"><ele>80.0</ele><time>2026-04-28T07:47:39.859Z</time></trkpt><trkpt lat="39.28009472914821" lon="8.705013099239144"><ele>80.0</ele><time>2026-04-28T07:47:40.859Z</time></trkpt><trkpt lat="39.2800837273549" lon="8.7051393660807"><ele>80.0</ele><time>2026-04-28T07:47:41.859Z</time></trkpt><trkpt lat="39.280072551315634" lon="8.705267488338144"><ele>80.0</ele><time>2026-04-28T07:47:42.859Z</time></trkpt><trkpt lat="39.280060241792704" lon="8.705396505677225"><ele>80.0</ele><time>2026-04-28T07:47:43.859Z</time></trkpt><trkpt lat="39.28004836378012" lon="8.705527127091806"><ele>80.0</ele><time>2026-04-28T07:47:44.859Z</time></trkpt><trkpt lat="39.280034066053304" lon="8.705655291838395"><ele>80.0</ele><time>2026-04-28T07:47:45.859Z</time></trkpt><trkpt lat="39.2800221295152" lon="8.70578252657658"><ele>80.0</ele><time>2026-04-28T07:47:46.859Z</time></trkpt><trkpt lat="39.280012296111614" lon="8.705907029776856"><ele>80.0</ele><time>2026-04-28T07:47:47.859Z</time></trkpt><trkpt lat="39.28000453054979" lon="8.706033408205077"><ele>80.0</ele><time>2026-04-28T07:47:48.859Z</time></trkpt><trkpt lat="39.28000381894387" lon="8.706161530740887"><ele>80.0</ele><time>2026-04-28T07:47:49.859Z</time></trkpt><trkpt lat="39.280007448080674" lon="8.706287560852795"><ele>80.0</ele><time>2026-04-28T07:47:50.859Z</time></trkpt><trkpt lat="39.280011631097416" lon="8.7064076541768"><ele>80.0</ele><time>2026-04-28T07:47:51.859Z</time></trkpt><trkpt lat="39.28001344006533" lon="8.706529747149865"><ele>80.0</ele><time>2026-04-28T07:47:52.859Z</time></trkpt><trkpt lat="39.2800140838686" lon="8.706659157347637"><ele>80.0</ele><time>2026-04-28T07:47:53.859Z</time></trkpt><trkpt lat="39.280010835927214" lon="8.706788474457383"><ele>79.8</ele><time>2026-04-28T07:47:54.859Z</time></trkpt><trkpt lat="39.280010321578295" lon="8.706913337651573"><ele>79.6</ele><time>2026-04-28T07:47:55.859Z</time></trkpt><trkpt lat="39.280009915300916" lon="8.70703790744925"><ele>79.4</ele><time>2026-04-28T07:47:56.859Z</time></trkpt><trkpt lat="39.28000906417163" lon="8.707163064141037"><ele>79.2</ele><time>2026-04-28T07:47:57.859Z</time></trkpt><trkpt lat="39.28000622326408" lon="8.707277570737205"><ele>79.0</ele><time>2026-04-28T07:47:58.859Z</time></trkpt><trkpt lat="39.28000242199841" lon="8.707401671571176"><ele>79.0</ele><time>2026-04-28T07:47:59.859Z</time></trkpt><trkpt lat="39.280000646200996" lon="8.70752897406549"><ele>79.0</ele><time>2026-04-28T07:48:00.859Z</time></trkpt><trkpt lat="39.279986751544605" lon="8.707656713135615"><ele>79.0</ele><time>2026-04-28T07:48:01.859Z</time></trkpt><trkpt lat="39.279976350536074" lon="8.707787336311291"><ele>79.0</ele><time>2026-04-28T07:48:02.859Z</time></trkpt><trkpt lat="39.27996523524649" lon="8.707908306556773"><ele>79.0</ele><time>2026-04-28T07:48:03.859Z</time></trkpt><trkpt lat="39.27995326680443" lon="8.708036372125846"><ele>79.0</ele><time>2026-04-28T07:48:04.859Z</time></trkpt><trkpt lat="39.27994272451751" lon="8.708165179426612"><ele>79.0</ele><time>2026-04-28T07:48:05.859Z</time></trkpt><trkpt lat="39.27993434496996" lon="8.70829674576479"><ele>79.0</ele><time>2026-04-28T07:48:06.859Z</time></trkpt><trkpt lat="39.27992697557971" lon="8.708426292158514"><ele>79.0</ele><time>2026-04-28T07:48:07.859Z</time></trkpt><trkpt lat="39.27992933337535" lon="8.708555151081718"><ele>79.0</ele><time>2026-04-28T07:48:08.859Z</time></trkpt><trkpt lat="39.279933430262226" lon="8.708686879106828"><ele>79.0</ele><time>2026-04-28T07:48:09.859Z</time></trkpt><trkpt lat="39.27994168956819" lon="8.70880830393958"><ele>79.0</ele><time>2026-04-28T07:48:10.859Z</time></trkpt><trkpt lat="39.27994723470078" lon="8.708960120437522"><ele>79.0</ele><time>2026-04-28T07:48:12.859Z</time></trkpt><trkpt lat="39.27998880010776" lon="8.709025960931251"><ele>79.0</ele><time>2026-04-28T07:48:14.859Z</time></trkpt><trkpt lat="39.28006241345461" lon="8.70892152965509"><ele>79.0</ele><time>2026-04-28T07:48:16.859Z</time></trkpt><trkpt lat="39.28009822864531" lon="8.708804466930056"><ele>79.0</ele><time>2026-04-28T07:48:17.859Z</time></trkpt><trkpt lat="39.280120511123556" lon="8.708645898313103"><ele>79.0</ele><time>2026-04-28T07:48:18.859Z</time></trkpt><trkpt lat="39.27986929876496" lon="8.709748320216482"><ele>79.0</ele><time>2026-04-28T07:48:19.859Z</time></trkpt><trkpt lat="39.27985020521607" lon="8.709862441604232"><ele>79.0</ele><time>2026-04-28T07:48:20.859Z</time></trkpt><trkpt lat="39.27983272778281" lon="8.709980720877349"><ele>79.0</ele><time>2026-04-28T07:48:21.859Z</time></trkpt><trkpt lat="39.27982621890234" lon="8.710100542831452"><ele>79.0</ele><time>2026-04-28T07:48:22.859Z</time></trkpt><trkpt lat="39.27982691817376" lon="8.71020721878021"><ele>79.0</ele><time>2026-04-28T07:48:23.859Z</time></trkpt><trkpt lat="39.2798142742043" lon="8.71030393890691"><ele>79.0</ele><time>2026-04-28T07:48:24.859Z</time></trkpt><trkpt lat="39.279798715049715" lon="8.710401606065735"><ele>79.0</ele><time>2026-04-28T07:48:25.859Z</time></trkpt><trkpt lat="39.27978871848379" lon="8.71048708477503"><ele>79.0</ele><time>2026-04-28T07:48:26.859Z</time></trkpt><trkpt lat="39.27977286356203" lon="8.710648679124395"><ele>79.0</ele><time>2026-04-28T07:48:28.859Z</time></trkpt><trkpt lat="39.279763366477404" lon="8.710738957708783"><ele>79.0</ele><time>2026-04-28T07:48:29.859Z</time></trkpt><trkpt lat="39.27975182957098" lon="8.710827076518568"><ele>79.0</ele><time>2026-04-28T07:48:30.859Z</time></trkpt><trkpt lat="39.27973677220848" lon="8.71098341056094"><ele>79.0</ele><time>2026-04-28T07:48:32.859Z</time></trkpt><trkpt lat="39.279717517298764" lon="8.711114325330177"><ele>79.0</ele><time>2026-04-28T07:48:34.859Z</time></trkpt><trkpt lat="39.27971080085864" lon="8.711199411305394"><ele>79.0</ele><time>2026-04-28T07:48:35.859Z</time></trkpt><trkpt lat="39.27969269411423" lon="8.711366564023228"><ele>79.0</ele><time>2026-04-28T07:48:37.859Z</time></trkpt><trkpt lat="39.27968171876966" lon="8.71146443995446"><ele>79.0</ele><time>2026-04-28T07:48:38.859Z</time></trkpt><trkpt lat="39.27967338016375" lon="8.7115640755167"><ele>79.0</ele><time>2026-04-28T07:48:39.859Z</time></trkpt><trkpt lat="39.27966085469645" lon="8.711660263166783"><ele>79.0</ele><time>2026-04-28T07:48:40.859Z</time></trkpt><trkpt lat="39.279643491438684" lon="8.71175639038794"><ele>79.0</ele><time>2026-04-28T07:48:41.859Z</time></trkpt><trkpt lat="39.279635375067" lon="8.711854192549142"><ele>79.0</ele><time>2026-04-28T07:48:42.859Z</time></trkpt><trkpt lat="39.27962761102691" lon="8.711954909927998"><ele>79.0</ele><time>2026-04-28T07:48:43.859Z</time></trkpt><trkpt lat="39.279594821688136" lon="8.712097536453117"><ele>79.0</ele><time>2026-04-28T07:48:45.859Z</time></trkpt><trkpt lat="39.27959478243545" lon="8.71218303898576"><ele>78.83333333333333</ele><time>2026-04-28T07:48:46.859Z</time></trkpt><trkpt lat="39.2795910062015" lon="8.712276269718213"><ele>78.66666666666666</ele><time>2026-04-28T07:48:47.859Z</time></trkpt><trkpt lat="39.27957297845334" lon="8.71237571718572"><ele>78.5</ele><time>2026-04-28T07:48:48.859Z</time></trkpt><trkpt lat="39.27956698014662" lon="8.712475919913548"><ele>78.33333333333333</ele><time>2026-04-28T07:48:49.859Z</time></trkpt><trkpt lat="39.279560217943875" lon="8.712579337216384"><ele>78.16666666666667</ele><time>2026-04-28T07:48:50.859Z</time></trkpt><trkpt lat="39.27953233080897" lon="8.712747542476473"><ele>78.0</ele><time>2026-04-28T07:48:52.859Z</time></trkpt><trkpt lat="39.2795179446973" lon="8.712829553570359"><ele>77.8</ele><time>2026-04-28T07:48:53.859Z</time></trkpt><trkpt lat="39.27952392403948" lon="8.712922667550684"><ele>77.6</ele><time>2026-04-28T07:48:55.859Z</time></trkpt><trkpt lat="39.2796109069131" lon="8.712940401370501"><ele>77.4</ele><time>2026-04-28T07:48:57.859Z</time></trkpt><trkpt lat="39.27976602631295" lon="8.712992735703228"><ele>77.2</ele><time>2026-04-28T07:48:59.858Z</time></trkpt><trkpt lat="39.279839599224175" lon="8.71301267767201"><ele>77.0</ele><time>2026-04-28T07:49:00.859Z</time></trkpt><trkpt lat="39.27991128348475" lon="8.713051483974564"><ele>77.33333333333334</ele><time>2026-04-28T07:49:01.859Z</time></trkpt><trkpt lat="39.27998732061246" lon="8.713086698262224"><ele>77.66666666666667</ele><time>2026-04-28T07:49:02.859Z</time></trkpt><trkpt lat="39.28007136822141" lon="8.713110886387977"><ele>78.0</ele><time>2026-04-28T07:49:03.859Z</time></trkpt><trkpt lat="39.28016362790202" lon="8.713138511319444"><ele>78.33333333333333</ele><time>2026-04-28T07:49:04.859Z</time></trkpt><trkpt lat="39.28025829480428" lon="8.71316755532597"><ele>78.66666666666666</ele><time>2026-04-28T07:49:05.859Z</time></trkpt><trkpt lat="39.280338723522455" lon="8.713192965601571"><ele>79.0</ele><time>2026-04-28T07:49:06.858Z</time></trkpt><trkpt lat="39.28041574631337" lon="8.713215849743543"><ele>79.0</ele><time>2026-04-28T07:49:07.858Z</time></trkpt><trkpt lat="39.28047677482728" lon="8.713239870642251"><ele>79.0</ele><time>2026-04-28T07:49:08.858Z</time></trkpt><trkpt lat="39.28053966315019" lon="8.713303897402827"><ele>79.0</ele><time>2026-04-28T07:49:10.859Z</time></trkpt><trkpt lat="39.280510996394504" lon="8.713456728979759"><ele>79.0</ele><time>2026-04-28T07:49:12.859Z</time></trkpt><trkpt lat="39.28047545300232" lon="8.713559342720911"><ele>79.0</ele><time>2026-04-28T07:49:13.859Z</time></trkpt><trkpt lat="39.28045731195026" lon="8.713665975040788"><ele>79.0</ele><time>2026-04-28T07:49:14.859Z</time></trkpt><trkpt lat="39.28045167288898" lon="8.7137720981239"><ele>78.8</ele><time>2026-04-28T07:49:15.859Z</time></trkpt><trkpt lat="39.28044971657913" lon="8.713899683383957"><ele>78.60000000000001</ele><time>2026-04-28T07:49:16.859Z</time></trkpt><trkpt lat="39.28044059865068" lon="8.71401725250606"><ele>78.4</ele><time>2026-04-28T07:49:17.859Z</time></trkpt><trkpt lat="39.28043937753265" lon="8.714130909123748"><ele>78.2</ele><time>2026-04-28T07:49:18.859Z</time></trkpt><trkpt lat="39.28043735281235" lon="8.71425819806763"><ele>78.0</ele><time>2026-04-28T07:49:19.859Z</time></trkpt><trkpt lat="39.28043718971784" lon="8.71438601054217"><ele>77.8</ele><time>2026-04-28T07:49:20.859Z</time></trkpt><trkpt lat="39.2804390678839" lon="8.714511535979641"><ele>77.6</ele><time>2026-04-28T07:49:21.859Z</time></trkpt><trkpt lat="39.280439646266444" lon="8.714648018885573"><ele>77.4</ele><time>2026-04-28T07:49:22.859Z</time></trkpt><trkpt lat="39.280437668496006" lon="8.714781057849034"><ele>77.2</ele><time>2026-04-28T07:49:23.859Z</time></trkpt><trkpt lat="39.28043627178633" lon="8.714917231703538"><ele>77.0</ele><time>2026-04-28T07:49:24.859Z</time></trkpt><trkpt lat="39.28043468886151" lon="8.715052218295359"><ele>77.0</ele><time>2026-04-28T07:49:25.859Z</time></trkpt><trkpt lat="39.28043512652138" lon="8.71518403546133"><ele>77.0</ele><time>2026-04-28T07:49:26.859Z</time></trkpt><trkpt lat="39.28043416400338" lon="8.715320562137055"><ele>77.0</ele><time>2026-04-28T07:49:27.859Z</time></trkpt><trkpt lat="39.28043074216472" lon="8.715461104379456"><ele>77.0</ele><time>2026-04-28T07:49:28.859Z</time></trkpt><trkpt lat="39.280428891131166" lon="8.715602171097904"><ele>77.0</ele><time>2026-04-28T07:49:29.859Z</time></trkpt><trkpt lat="39.28042278346009" lon="8.715745753021475"><ele>77.0</ele><time>2026-04-28T07:49:30.859Z</time></trkpt><trkpt lat="39.280420591854565" lon="8.715888877340435"><ele>77.0</ele><time>2026-04-28T07:49:31.859Z</time></trkpt><trkpt lat="39.28041821032009" lon="8.716022574999085"><ele>77.0</ele><time>2026-04-28T07:49:32.859Z</time></trkpt><trkpt lat="39.28041855956805" lon="8.71616163582273"><ele>77.0</ele><time>2026-04-28T07:49:33.859Z</time></trkpt><trkpt lat="39.28041832055681" lon="8.716303895905916"><ele>77.0</ele><time>2026-04-28T07:49:34.859Z</time></trkpt><trkpt lat="39.280415508667495" lon="8.716449607075145"><ele>76.75</ele><time>2026-04-28T07:49:35.859Z</time></trkpt><trkpt lat="39.280411593656645" lon="8.716596363179939"><ele>76.5</ele><time>2026-04-28T07:49:36.859Z</time></trkpt><trkpt lat="39.280409178490885" lon="8.716748672182504"><ele>76.25</ele><time>2026-04-28T07:49:37.859Z</time></trkpt><trkpt lat="39.28040823634335" lon="8.716902335014755"><ele>76.0</ele><time>2026-04-28T07:49:38.859Z</time></trkpt><trkpt lat="39.2804076210428" lon="8.717053731710426"><ele>76.0</ele><time>2026-04-28T07:49:39.859Z</time></trkpt><trkpt lat="39.28040534282558" lon="8.717206510635181"><ele>76.0</ele><time>2026-04-28T07:49:40.859Z</time></trkpt><trkpt lat="39.280404763873406" lon="8.717360841698051"><ele>76.0</ele><time>2026-04-28T07:49:41.859Z</time></trkpt><trkpt lat="39.28040107682693" lon="8.71751583441234"><ele>76.0</ele><time>2026-04-28T07:49:42.859Z</time></trkpt><trkpt lat="39.28039753172359" lon="8.717669602080775"><ele>76.0</ele><time>2026-04-28T07:49:43.859Z</time></trkpt><trkpt lat="39.280391815110534" lon="8.717819818296894"><ele>76.0</ele><time>2026-04-28T07:49:44.859Z</time></trkpt><trkpt lat="39.280382287826185" lon="8.717970812219823"><ele>76.0</ele><time>2026-04-28T07:49:45.859Z</time></trkpt><trkpt lat="39.28037632847969" lon="8.718120899665044"><ele>76.0</ele><time>2026-04-28T07:49:46.859Z</time></trkpt><trkpt lat="39.28037128588895" lon="8.718267339183022"><ele>76.0</ele><time>2026-04-28T07:49:47.859Z</time></trkpt><trkpt lat="39.28037025440867" lon="8.718400946892684"><ele>76.0</ele><time>2026-04-28T07:49:48.859Z</time></trkpt><trkpt lat="39.28037112742428" lon="8.718527863175906"><ele>76.0</ele><time>2026-04-28T07:49:49.859Z</time></trkpt><trkpt lat="39.28036685656855" lon="8.718650399712228"><ele>76.0</ele><time>2026-04-28T07:49:50.859Z</time></trkpt><trkpt lat="39.280369083117066" lon="8.71876812949874"><ele>76.0</ele><time>2026-04-28T07:49:51.859Z</time></trkpt><trkpt lat="39.280364974069556" lon="8.718859847447238"><ele>76.16666666666666</ele><time>2026-04-28T07:49:52.859Z</time></trkpt><trkpt lat="39.28041902071614" lon="8.71898378869541"><ele>76.33333333333333</ele><time>2026-04-28T07:49:54.859Z</time></trkpt><trkpt lat="39.2804635013893" lon="8.719045186477416"><ele>76.5</ele><time>2026-04-28T07:49:55.859Z</time></trkpt><trkpt lat="39.28050225096873" lon="8.719113025656661"><ele>76.66666666666667</ele><time>2026-04-28T07:49:56.859Z</time></trkpt><trkpt lat="39.2805739604386" lon="8.719212199692322"><ele>76.83333333333334</ele><time>2026-04-28T07:49:58.859Z</time></trkpt><trkpt lat="39.28065288603138" lon="8.719222559597933"><ele>77.0</ele><time>2026-04-28T07:50:00.859Z</time></trkpt><trkpt lat="39.280784888029984" lon="8.719218604995746"><ele>76.83333333333334</ele><time>2026-04-28T07:50:02.859Z</time></trkpt><trkpt lat="39.28084735891413" lon="8.719228797527034"><ele>76.66666666666667</ele><time>2026-04-28T07:50:03.859Z</time></trkpt><trkpt lat="39.28091221914205" lon="8.71932777689724"><ele>76.5</ele><time>2026-04-28T07:50:05.859Z</time></trkpt><trkpt lat="39.28092787920873" lon="8.719406622722394"><ele>76.33333333333333</ele><time>2026-04-28T07:50:06.859Z</time></trkpt><trkpt lat="39.28094834694987" lon="8.719491268494279"><ele>76.16666666666666</ele><time>2026-04-28T07:50:07.859Z</time></trkpt><trkpt lat="39.28098197302215" lon="8.719564579491637"><ele>76.0</ele><time>2026-04-28T07:50:08.859Z</time></trkpt><trkpt lat="39.28101068947939" lon="8.719687200503573"><ele>76.0</ele><time>2026-04-28T07:50:10.859Z</time></trkpt><trkpt lat="39.28102236661169" lon="8.719830068250342"><ele>76.0</ele><time>2026-04-28T07:50:12.859Z</time></trkpt><trkpt lat="39.281018459274506" lon="8.719950036329031"><ele>76.0</ele><time>2026-04-28T07:50:13.859Z</time></trkpt><trkpt lat="39.281010264143305" lon="8.72006923024548"><ele>76.0</ele><time>2026-04-28T07:50:14.859Z</time></trkpt><trkpt lat="39.28100262374259" lon="8.720223703928992"><ele>76.0</ele><time>2026-04-28T07:50:15.859Z</time></trkpt><trkpt lat="39.28100460392259" lon="8.720373233912493"><ele>75.75</ele><time>2026-04-28T07:50:16.859Z</time></trkpt><trkpt lat="39.28099477933491" lon="8.720511365271332"><ele>75.5</ele><time>2026-04-28T07:50:17.859Z</time></trkpt><trkpt lat="39.28099734544895" lon="8.720669668231368"><ele>75.25</ele><time>2026-04-28T07:50:18.859Z</time></trkpt><trkpt lat="39.28099977972873" lon="8.720844601623515"><ele>75.0</ele><time>2026-04-28T07:50:19.859Z</time></trkpt><trkpt lat="39.281001449037596" lon="8.721012336483588"><ele>75.0</ele><time>2026-04-28T07:50:20.859Z</time></trkpt><trkpt lat="39.280998844128135" lon="8.721173730441867"><ele>75.0</ele><time>2026-04-28T07:50:21.859Z</time></trkpt><trkpt lat="39.28099548719199" lon="8.721342576656786"><ele>75.0</ele><time>2026-04-28T07:50:22.859Z</time></trkpt><trkpt lat="39.28099453544575" lon="8.72152237608493"><ele>75.0</ele><time>2026-04-28T07:50:23.859Z</time></trkpt><trkpt lat="39.2809927062869" lon="8.721700768539685"><ele>75.0</ele><time>2026-04-28T07:50:24.859Z</time></trkpt><trkpt lat="39.280991306152764" lon="8.721870241513493"><ele>75.0</ele><time>2026-04-28T07:50:25.859Z</time></trkpt><trkpt lat="39.280988234768664" lon="8.722040551882074"><ele>75.0</ele><time>2026-04-28T07:50:26.859Z</time></trkpt><trkpt lat="39.28098311727512" lon="8.722212705935359"><ele>75.0</ele><time>2026-04-28T07:50:27.859Z</time></trkpt><trkpt lat="39.28098084894762" lon="8.722379032826366"><ele>74.75</ele><time>2026-04-28T07:50:28.859Z</time></trkpt><trkpt lat="39.28097637038831" lon="8.722538547912057"><ele>74.5</ele><time>2026-04-28T07:50:29.859Z</time></trkpt><trkpt lat="39.280973681236645" lon="8.722702877482616"><ele>74.25</ele><time>2026-04-28T07:50:30.859Z</time></trkpt><trkpt lat="39.2809694093737" lon="8.72286643204126"><ele>74.0</ele><time>2026-04-28T07:50:31.859Z</time></trkpt><trkpt lat="39.28096512472796" lon="8.723038782150796"><ele>73.75</ele><time>2026-04-28T07:50:32.859Z</time></trkpt><trkpt lat="39.28096397068779" lon="8.723205952780429"><ele>73.5</ele><time>2026-04-28T07:50:33.859Z</time></trkpt><trkpt lat="39.28096825446162" lon="8.723361031173672"><ele>73.25</ele><time>2026-04-28T07:50:34.859Z</time></trkpt><trkpt lat="39.28097807674879" lon="8.723504367713028"><ele>73.0</ele><time>2026-04-28T07:50:35.859Z</time></trkpt><trkpt lat="39.28097780489441" lon="8.723651805593327"><ele>73.0</ele><time>2026-04-28T07:50:36.859Z</time></trkpt><trkpt lat="39.28097550812877" lon="8.723797345367945"><ele>73.0</ele><time>2026-04-28T07:50:37.859Z</time></trkpt><trkpt lat="39.28096622669137" lon="8.723950219672613"><ele>73.0</ele><time>2026-04-28T07:50:38.859Z</time></trkpt><trkpt lat="39.28096125943649" lon="8.72411291677553"><ele>73.0</ele><time>2026-04-28T07:50:39.859Z</time></trkpt><trkpt lat="39.28095227399567" lon="8.724275239006818"><ele>73.25</ele><time>2026-04-28T07:50:40.859Z</time></trkpt><trkpt lat="39.280950302833105" lon="8.724431989706238"><ele>73.5</ele><time>2026-04-28T07:50:41.859Z</time></trkpt><trkpt lat="39.28095045469887" lon="8.724589914275423"><ele>73.75</ele><time>2026-04-28T07:50:42.859Z</time></trkpt><trkpt lat="39.28094680478892" lon="8.724743359995644"><ele>74.0</ele><time>2026-04-28T07:50:43.859Z</time></trkpt><trkpt lat="39.280945128227145" lon="8.724902200532446"><ele>74.0</ele><time>2026-04-28T07:50:44.859Z</time></trkpt><trkpt lat="39.28094330781317" lon="8.725064752174154"><ele>74.0</ele><time>2026-04-28T07:50:45.859Z</time></trkpt><trkpt lat="39.28093949139246" lon="8.725226770214668"><ele>74.0</ele><time>2026-04-28T07:50:46.859Z</time></trkpt><trkpt lat="39.28093532702354" lon="8.725380045897516"><ele>74.0</ele><time>2026-04-28T07:50:47.859Z</time></trkpt><trkpt lat="39.280934070146046" lon="8.725545212535048"><ele>73.5</ele><time>2026-04-28T07:50:48.859Z</time></trkpt><trkpt lat="39.28093473815782" lon="8.725711764522446"><ele>73.0</ele><time>2026-04-28T07:50:49.859Z</time></trkpt><trkpt lat="39.280938903059806" lon="8.725875484589347"><ele>72.5</ele><time>2026-04-28T07:50:50.859Z</time></trkpt><trkpt lat="39.280943907749375" lon="8.726038611305329"><ele>72.0</ele><time>2026-04-28T07:50:51.859Z</time></trkpt><trkpt lat="39.28094420845488" lon="8.726198826411304"><ele>72.0</ele><time>2026-04-28T07:50:52.859Z</time></trkpt><trkpt lat="39.28093773294409" lon="8.726363523226008"><ele>72.0</ele><time>2026-04-28T07:50:53.859Z</time></trkpt><trkpt lat="39.2809306447704" lon="8.726530775961583"><ele>72.0</ele><time>2026-04-28T07:50:54.859Z</time></trkpt><trkpt lat="39.28092435630598" lon="8.726690582274557"><ele>72.0</ele><time>2026-04-28T07:50:55.859Z</time></trkpt><trkpt lat="39.28091887657289" lon="8.726857683541938"><ele>71.75</ele><time>2026-04-28T07:50:56.859Z</time></trkpt><trkpt lat="39.280915808880486" lon="8.727018551840327"><ele>71.5</ele><time>2026-04-28T07:50:57.859Z</time></trkpt><trkpt lat="39.280910468823805" lon="8.727189962203406"><ele>71.25</ele><time>2026-04-28T07:50:58.859Z</time></trkpt><trkpt lat="39.28090477640757" lon="8.727364466728092"><ele>71.0</ele><time>2026-04-28T07:50:59.859Z</time></trkpt><trkpt lat="39.28090004152753" lon="8.727533062188746"><ele>71.0</ele><time>2026-04-28T07:51:00.859Z</time></trkpt><trkpt lat="39.28089954715443" lon="8.727714285773912"><ele>71.0</ele><time>2026-04-28T07:51:01.859Z</time></trkpt><trkpt lat="39.28089551687191" lon="8.727884586002867"><ele>71.0</ele><time>2026-04-28T07:51:02.857Z</time></trkpt><trkpt lat="39.28089226121205" lon="8.728058355931232"><ele>71.0</ele><time>2026-04-28T07:51:03.857Z</time></trkpt><trkpt lat="39.28088966301663" lon="8.728228202023463"><ele>71.0</ele><time>2026-04-28T07:51:04.857Z</time></trkpt><trkpt lat="39.28088615632457" lon="8.728397024332823"><ele>71.0</ele><time>2026-04-28T07:51:05.858Z</time></trkpt><trkpt lat="39.28088432383576" lon="8.728565644927972"><ele>71.0</ele><time>2026-04-28T07:51:06.857Z</time></trkpt><trkpt lat="39.28088080450138" lon="8.728721478145356"><ele>71.0</ele><time>2026-04-28T07:51:07.857Z</time></trkpt><trkpt lat="39.28087781125925" lon="8.728866099173127"><ele>71.0</ele><time>2026-04-28T07:51:08.857Z</time></trkpt><trkpt lat="39.28087360388911" lon="8.72901092954954"><ele>71.0</ele><time>2026-04-28T07:51:09.858Z</time></trkpt><trkpt lat="39.28087014543005" lon="8.72914532413677"><ele>71.0</ele><time>2026-04-28T07:51:10.858Z</time></trkpt><trkpt lat="39.28087103559009" lon="8.729263567606845"><ele>71.0</ele><time>2026-04-28T07:51:11.858Z</time></trkpt><trkpt lat="39.28086874425037" lon="8.729359623175345"><ele>71.0</ele><time>2026-04-28T07:51:12.858Z</time></trkpt><trkpt lat="39.28086592367241" lon="8.729453302227142"><ele>71.0</ele><time>2026-04-28T07:51:13.858Z</time></trkpt><trkpt lat="39.28087000291638" lon="8.729608524923554"><ele>71.0</ele><time>2026-04-28T07:51:15.857Z</time></trkpt><trkpt lat="39.28088226441343" lon="8.729771166421974"><ele>71.0</ele><time>2026-04-28T07:51:17.857Z</time></trkpt><trkpt lat="39.280894088200206" lon="8.72989164049415"><ele>71.0</ele><time>2026-04-28T07:51:18.857Z</time></trkpt><trkpt lat="39.28089141448769" lon="8.730012577941606"><ele>71.0</ele><time>2026-04-28T07:51:19.857Z</time></trkpt><trkpt lat="39.28090273412886" lon="8.73015360007518"><ele>70.75</ele><time>2026-04-28T07:51:20.857Z</time></trkpt><trkpt lat="39.280909592302265" lon="8.730296649252535"><ele>70.5</ele><time>2026-04-28T07:51:21.857Z</time></trkpt><trkpt lat="39.28091841012771" lon="8.730450212533714"><ele>70.25</ele><time>2026-04-28T07:51:22.857Z</time></trkpt><trkpt lat="39.28093510683714" lon="8.730607854188596"><ele>70.0</ele><time>2026-04-28T07:51:23.857Z</time></trkpt><trkpt lat="39.28094954805939" lon="8.730755972279846"><ele>70.0</ele><time>2026-04-28T07:51:24.857Z</time></trkpt><trkpt lat="39.28097743257511" lon="8.730946771783056"><ele>70.0</ele><time>2026-04-28T07:51:25.857Z</time></trkpt><trkpt lat="39.28088366432268" lon="8.73089502701037"><ele>70.0</ele><time>2026-04-28T07:51:26.857Z</time></trkpt><trkpt lat="39.28088182329679" lon="8.731005741466996"><ele>70.0</ele><time>2026-04-28T07:51:27.857Z</time></trkpt><trkpt lat="39.28087029149949" lon="8.731115501636937"><ele>70.0</ele><time>2026-04-28T07:51:28.857Z</time></trkpt><trkpt lat="39.28085935199749" lon="8.73122608961003"><ele>70.0</ele><time>2026-04-28T07:51:29.857Z</time></trkpt><trkpt lat="39.28085462128024" lon="8.731345071593106"><ele>70.0</ele><time>2026-04-28T07:51:30.857Z</time></trkpt><trkpt lat="39.28085492895664" lon="8.731472647078057"><ele>70.0</ele><time>2026-04-28T07:51:31.857Z</time></trkpt><trkpt lat="39.28085532056693" lon="8.731597081775481"><ele>70.0</ele><time>2026-04-28T07:51:32.857Z</time></trkpt><trkpt lat="39.280854453863874" lon="8.731723713153283"><ele>70.0</ele><time>2026-04-28T07:51:33.857Z</time></trkpt><trkpt lat="39.28085089216147" lon="8.731855185836483"><ele>70.0</ele><time>2026-04-28T07:51:34.857Z</time></trkpt><trkpt lat="39.280845143421004" lon="8.73198876090677"><ele>70.0</ele><time>2026-04-28T07:51:35.857Z</time></trkpt><trkpt lat="39.280840663616765" lon="8.732125593453118"><ele>70.0</ele><time>2026-04-28T07:51:36.857Z</time></trkpt><trkpt lat="39.280841702258726" lon="8.732265575292875"><ele>70.0</ele><time>2026-04-28T07:51:37.857Z</time></trkpt><trkpt lat="39.280838743455604" lon="8.732401323376923"><ele>70.0</ele><time>2026-04-28T07:51:38.857Z</time></trkpt><trkpt lat="39.280837474475256" lon="8.732524462511277"><ele>70.0</ele><time>2026-04-28T07:51:39.857Z</time></trkpt><trkpt lat="39.28083560196112" lon="8.732634784367539"><ele>70.0</ele><time>2026-04-28T07:51:40.857Z</time></trkpt><trkpt lat="39.2808365069638" lon="8.732727730449952"><ele>70.0</ele><time>2026-04-28T07:51:41.857Z</time></trkpt><trkpt lat="39.28084107763028" lon="8.732887556640241"><ele>70.0</ele><time>2026-04-28T07:51:43.857Z</time></trkpt><trkpt lat="39.28084273279664" lon="8.732984835657199"><ele>70.0</ele><time>2026-04-28T07:51:44.857Z</time></trkpt><trkpt lat="39.28084396934825" lon="8.733087683132771"><ele>70.0</ele><time>2026-04-28T07:51:45.857Z</time></trkpt><trkpt lat="39.28084001607642" lon="8.733188408099528"><ele>70.16666666666666</ele><time>2026-04-28T07:51:46.857Z</time></trkpt><trkpt lat="39.28083693347579" lon="8.73328996608557"><ele>70.33333333333333</ele><time>2026-04-28T07:51:47.857Z</time></trkpt><trkpt lat="39.28083498543428" lon="8.733374529940608"><ele>70.5</ele><time>2026-04-28T07:51:48.857Z</time></trkpt><trkpt lat="39.280835341881634" lon="8.73349394185058"><ele>70.66666666666667</ele><time>2026-04-28T07:51:49.857Z</time></trkpt><trkpt lat="39.280836012359984" lon="8.7336040018727"><ele>70.83333333333334</ele><time>2026-04-28T07:51:50.857Z</time></trkpt><trkpt lat="39.28083314608053" lon="8.733714486279506"><ele>71.0</ele><time>2026-04-28T07:51:51.857Z</time></trkpt><trkpt lat="39.28082982246925" lon="8.733826861663957"><ele>71.0</ele><time>2026-04-28T07:51:52.857Z</time></trkpt><trkpt lat="39.28083005894647" lon="8.733929252738838"><ele>71.0</ele><time>2026-04-28T07:51:53.857Z</time></trkpt><trkpt lat="39.28082741173001" lon="8.734031878822742"><ele>71.0</ele><time>2026-04-28T07:51:54.857Z</time></trkpt><trkpt lat="39.28081977525832" lon="8.734133571940417"><ele>71.0</ele><time>2026-04-28T07:51:55.857Z</time></trkpt><trkpt lat="39.280822713475736" lon="8.73422683851406"><ele>71.0</ele><time>2026-04-28T07:51:56.857Z</time></trkpt><trkpt lat="39.280820182209936" lon="8.73433048070103"><ele>71.0</ele><time>2026-04-28T07:51:57.857Z</time></trkpt><trkpt lat="39.28081714572692" lon="8.734445549139606"><ele>70.83333333333334</ele><time>2026-04-28T07:51:58.857Z</time></trkpt><trkpt lat="39.280816815766734" lon="8.734565785916802"><ele>70.66666666666667</ele><time>2026-04-28T07:51:59.857Z</time></trkpt><trkpt lat="39.280813897330496" lon="8.734674372922102"><ele>70.5</ele><time>2026-04-28T07:52:00.857Z</time></trkpt><trkpt lat="39.28081760229329" lon="8.734771814534769"><ele>70.33333333333333</ele><time>2026-04-28T07:52:01.857Z</time></trkpt><trkpt lat="39.28083121969727" lon="8.734865055057151"><ele>70.16666666666666</ele><time>2026-04-28T07:52:02.857Z</time></trkpt><trkpt lat="39.28085635300969" lon="8.734940200602017"><ele>70.0</ele><time>2026-04-28T07:52:03.857Z</time></trkpt><trkpt lat="39.28089306524354" lon="8.735010146333504"><ele>70.0</ele><time>2026-04-28T07:52:04.857Z</time></trkpt><trkpt lat="39.28093915331866" lon="8.73507390941643"><ele>70.0</ele><time>2026-04-28T07:52:05.857Z</time></trkpt><trkpt lat="39.28100905662228" lon="8.735103109666946"><ele>70.0</ele><time>2026-04-28T07:52:06.857Z</time></trkpt><trkpt lat="39.28108234814456" lon="8.735133766086795"><ele>70.0</ele><time>2026-04-28T07:52:07.857Z</time></trkpt><trkpt lat="39.28115782459629" lon="8.735156921773783"><ele>70.0</ele><time>2026-04-28T07:52:08.857Z</time></trkpt><trkpt lat="39.28123605573961" lon="8.735177356422556"><ele>70.0</ele><time>2026-04-28T07:52:09.857Z</time></trkpt><trkpt lat="39.28129889707524" lon="8.735206357648154"><ele>70.0</ele><time>2026-04-28T07:52:10.857Z</time></trkpt><trkpt lat="39.28135285634684" lon="8.735271596978336"><ele>70.0</ele><time>2026-04-28T07:52:12.857Z</time></trkpt><trkpt lat="39.281384735840376" lon="8.735366678577964"><ele>70.0</ele><time>2026-04-28T07:52:15.857Z</time></trkpt><trkpt lat="39.281338977195574" lon="8.73546402345016"><ele>70.0</ele><time>2026-04-28T07:52:18.857Z</time></trkpt><trkpt lat="39.28124162373897" lon="8.735480957656613"><ele>70.0</ele><time>2026-04-28T07:52:20.857Z</time></trkpt><trkpt lat="39.28117479028099" lon="8.735475284322833"><ele>70.0</ele><time>2026-04-28T07:52:21.857Z</time></trkpt><trkpt lat="39.28111004551072" lon="8.73545814308387"><ele>70.0</ele><time>2026-04-28T07:52:22.857Z</time></trkpt><trkpt lat="39.28104666956879" lon="8.735449042787238"><ele>70.0</ele><time>2026-04-28T07:52:23.857Z</time></trkpt><trkpt lat="39.28097543265602" lon="8.73545487557247"><ele>70.0</ele><time>2026-04-28T07:52:24.857Z</time></trkpt><trkpt lat="39.28088412146315" lon="8.735513393625206"><ele>70.0</ele><time>2026-04-28T07:52:26.857Z</time></trkpt><trkpt lat="39.280852992304496" lon="8.735631869037"><ele>70.0</ele><time>2026-04-28T07:52:28.857Z</time></trkpt><trkpt lat="39.28083098233429" lon="8.735715395599119"><ele>70.0</ele><time>2026-04-28T07:52:29.857Z</time></trkpt><trkpt lat="39.28080579055511" lon="8.73581610745274"><ele>70.0</ele><time>2026-04-28T07:52:30.857Z</time></trkpt><trkpt lat="39.28079089325335" lon="8.7359110814514"><ele>70.0</ele><time>2026-04-28T07:52:31.857Z</time></trkpt><trkpt lat="39.28078721048252" lon="8.736022328147595"><ele>70.0</ele><time>2026-04-28T07:52:32.857Z</time></trkpt><trkpt lat="39.28078829241825" lon="8.736138672269414"><ele>70.0</ele><time>2026-04-28T07:52:33.857Z</time></trkpt><trkpt lat="39.28078966899945" lon="8.736266213179423"><ele>70.0</ele><time>2026-04-28T07:52:34.857Z</time></trkpt><trkpt lat="39.28078497851638" lon="8.736403764313248"><ele>70.0</ele><time>2026-04-28T07:52:35.857Z</time></trkpt><trkpt lat="39.28078090116048" lon="8.736542293855326"><ele>69.6</ele><time>2026-04-28T07:52:36.857Z</time></trkpt><trkpt lat="39.280778011269284" lon="8.736680537535644"><ele>69.2</ele><time>2026-04-28T07:52:37.857Z</time></trkpt><trkpt lat="39.28077289124258" lon="8.736821008904023"><ele>68.8</ele><time>2026-04-28T07:52:38.857Z</time></trkpt><trkpt lat="39.28076721487968" lon="8.736955419451245"><ele>68.4</ele><time>2026-04-28T07:52:39.857Z</time></trkpt><trkpt lat="39.28076021121927" lon="8.737094124147873"><ele>68.0</ele><time>2026-04-28T07:52:40.857Z</time></trkpt><trkpt lat="39.2807566190421" lon="8.737237507369377"><ele>67.75</ele><time>2026-04-28T07:52:41.857Z</time></trkpt><trkpt lat="39.2807599896777" lon="8.737387381439127"><ele>67.5</ele><time>2026-04-28T07:52:42.857Z</time></trkpt><trkpt lat="39.28075802879797" lon="8.73753683995388"><ele>67.25</ele><time>2026-04-28T07:52:43.857Z</time></trkpt><trkpt lat="39.28075531675015" lon="8.737684205149362"><ele>67.0</ele><time>2026-04-28T07:52:44.857Z</time></trkpt><trkpt lat="39.28075388699287" lon="8.737837533398508"><ele>67.2</ele><time>2026-04-28T07:52:45.857Z</time></trkpt><trkpt lat="39.280747214188175" lon="8.737979043971675"><ele>67.4</ele><time>2026-04-28T07:52:46.857Z</time></trkpt><trkpt lat="39.280741338098" lon="8.738123954977855"><ele>67.6</ele><time>2026-04-28T07:52:47.857Z</time></trkpt><trkpt lat="39.28074174910521" lon="8.738268776912287"><ele>67.8</ele><time>2026-04-28T07:52:48.857Z</time></trkpt><trkpt lat="39.280740636785644" lon="8.738412584833574"><ele>68.0</ele><time>2026-04-28T07:52:49.857Z</time></trkpt><trkpt lat="39.280738203397675" lon="8.738557290993345"><ele>68.0</ele><time>2026-04-28T07:52:50.857Z</time></trkpt><trkpt lat="39.2807317236067" lon="8.738706822102994"><ele>68.0</ele><time>2026-04-28T07:52:51.857Z</time></trkpt><trkpt lat="39.280726001511354" lon="8.738860688701964"><ele>68.0</ele><time>2026-04-28T07:52:52.857Z</time></trkpt><trkpt lat="39.280723563374096" lon="8.739010481209778"><ele>68.0</ele><time>2026-04-28T07:52:53.857Z</time></trkpt><trkpt lat="39.28071974622011" lon="8.739160177803399"><ele>68.0</ele><time>2026-04-28T07:52:54.857Z</time></trkpt><trkpt lat="39.280713060833705" lon="8.739315932703231"><ele>68.0</ele><time>2026-04-28T07:52:55.857Z</time></trkpt><trkpt lat="39.28070816379252" lon="8.739464072513988"><ele>68.0</ele><time>2026-04-28T07:52:56.857Z</time></trkpt><trkpt lat="39.28070327777798" lon="8.739613597363046"><ele>68.0</ele><time>2026-04-28T07:52:57.857Z</time></trkpt><trkpt lat="39.28070073512551" lon="8.739761826795734"><ele>68.0</ele><time>2026-04-28T07:52:58.857Z</time></trkpt><trkpt lat="39.28069388783358" lon="8.73991083601797"><ele>68.0</ele><time>2026-04-28T07:52:59.857Z</time></trkpt><trkpt lat="39.280692007258615" lon="8.740054519100678"><ele>68.0</ele><time>2026-04-28T07:53:00.857Z</time></trkpt><trkpt lat="39.28069395883298" lon="8.74020279371698"><ele>68.0</ele><time>2026-04-28T07:53:01.857Z</time></trkpt><trkpt lat="39.28069541666336" lon="8.740352034081628"><ele>68.0</ele><time>2026-04-28T07:53:02.857Z</time></trkpt><trkpt lat="39.28070172444172" lon="8.740503704786653"><ele>68.0</ele><time>2026-04-28T07:53:03.857Z</time></trkpt><trkpt lat="39.28071313451182" lon="8.74065259313369"><ele>68.0</ele><time>2026-04-28T07:53:04.857Z</time></trkpt><trkpt lat="39.28073017112128" lon="8.740803906127404"><ele>68.0</ele><time>2026-04-28T07:53:05.857Z</time></trkpt><trkpt lat="39.28075219704408" lon="8.74095182349326"><ele>67.5</ele><time>2026-04-28T07:53:06.857Z</time></trkpt><trkpt lat="39.28077864242885" lon="8.74109783498357"><ele>67.0</ele><time>2026-04-28T07:53:07.857Z</time></trkpt><trkpt lat="39.28081132537683" lon="8.741246304022525"><ele>66.5</ele><time>2026-04-28T07:53:08.857Z</time></trkpt><trkpt lat="39.28085079497858" lon="8.741388350356885"><ele>66.0</ele><time>2026-04-28T07:53:09.856Z</time></trkpt><trkpt lat="39.28089323122644" lon="8.741536854978165"><ele>66.0</ele><time>2026-04-28T07:53:10.856Z</time></trkpt><trkpt lat="39.28093909158236" lon="8.741688515885233"><ele>66.0</ele><time>2026-04-28T07:53:11.856Z</time></trkpt><trkpt lat="39.28098843546786" lon="8.7418286530813"><ele>66.0</ele><time>2026-04-28T07:53:12.856Z</time></trkpt><trkpt lat="39.281046305280455" lon="8.74196418114467"><ele>66.0</ele><time>2026-04-28T07:53:13.856Z</time></trkpt><trkpt lat="39.28111385824108" lon="8.742094074067046"><ele>66.0</ele><time>2026-04-28T07:53:14.856Z</time></trkpt><trkpt lat="39.28117987723897" lon="8.742227767238688"><ele>66.0</ele><time>2026-04-28T07:53:15.856Z</time></trkpt><trkpt lat="39.281240776258095" lon="8.74236759842067"><ele>66.0</ele><time>2026-04-28T07:53:16.856Z</time></trkpt><trkpt lat="39.281293711938865" lon="8.742509795829331"><ele>66.0</ele><time>2026-04-28T07:53:17.857Z</time></trkpt><trkpt lat="39.28134542589961" lon="8.742652674091016"><ele>66.25</ele><time>2026-04-28T07:53:18.856Z</time></trkpt><trkpt lat="39.28139983059381" lon="8.742789608169375"><ele>66.5</ele><time>2026-04-28T07:53:19.856Z</time></trkpt><trkpt lat="39.281453637977194" lon="8.742922427453097"><ele>66.75</ele><time>2026-04-28T07:53:20.856Z</time></trkpt><trkpt lat="39.28150525373706" lon="8.743056931579789"><ele>67.0</ele><time>2026-04-28T07:53:21.857Z</time></trkpt><trkpt lat="39.281554197993835" lon="8.743187728001697"><ele>67.0</ele><time>2026-04-28T07:53:22.857Z</time></trkpt><trkpt lat="39.28160781882432" lon="8.743321581548845"><ele>67.0</ele><time>2026-04-28T07:53:23.857Z</time></trkpt><trkpt lat="39.28166422843841" lon="8.743457439678298"><ele>67.0</ele><time>2026-04-28T07:53:24.857Z</time></trkpt><trkpt lat="39.28172212331544" lon="8.743599018985478"><ele>67.0</ele><time>2026-04-28T07:53:25.857Z</time></trkpt><trkpt lat="39.28177828433773" lon="8.743738630048222"><ele>66.75</ele><time>2026-04-28T07:53:26.857Z</time></trkpt><trkpt lat="39.281834864957396" lon="8.74387914508107"><ele>66.5</ele><time>2026-04-28T07:53:27.857Z</time></trkpt><trkpt lat="39.28189471400553" lon="8.744020886786528"><ele>66.25</ele><time>2026-04-28T07:53:28.857Z</time></trkpt><trkpt lat="39.28195084426796" lon="8.744160575920445"><ele>66.0</ele><time>2026-04-28T07:53:29.857Z</time></trkpt><trkpt lat="39.2820021355883" lon="8.744284411404463"><ele>66.16666666666667</ele><time>2026-04-28T07:53:30.857Z</time></trkpt><trkpt lat="39.28205396719094" lon="8.74440385510717"><ele>66.33333333333333</ele><time>2026-04-28T07:53:31.857Z</time></trkpt><trkpt lat="39.28210140190679" lon="8.744504657806772"><ele>66.5</ele><time>2026-04-28T07:53:32.857Z</time></trkpt><trkpt lat="39.282145851738484" lon="8.744591140317912"><ele>66.66666666666666</ele><time>2026-04-28T07:53:33.857Z</time></trkpt><trkpt lat="39.28219622119224" lon="8.744657129627713"><ele>66.83333333333333</ele><time>2026-04-28T07:53:34.857Z</time></trkpt><trkpt lat="39.28225118690146" lon="8.7447208521418"><ele>67.0</ele><time>2026-04-28T07:53:35.857Z</time></trkpt><trkpt lat="39.28228554999093" lon="8.7447984191282"><ele>67.0</ele><time>2026-04-28T07:53:36.857Z</time></trkpt><trkpt lat="39.282297124281406" lon="8.744894288293516"><ele>67.0</ele><time>2026-04-28T07:53:37.857Z</time></trkpt><trkpt lat="39.2823002381492" lon="8.745001122491852"><ele>67.0</ele><time>2026-04-28T07:53:38.857Z</time></trkpt><trkpt lat="39.2823218337786" lon="8.74510757906548"><ele>67.0</ele><time>2026-04-28T07:53:39.857Z</time></trkpt><trkpt lat="39.282369061769806" lon="8.745201574660797"><ele>67.0</ele><time>2026-04-28T07:53:40.857Z</time></trkpt><trkpt lat="39.28241640807956" lon="8.745306890096376"><ele>67.0</ele><time>2026-04-28T07:53:41.857Z</time></trkpt><trkpt lat="39.282459591835725" lon="8.745410612609607"><ele>67.0</ele><time>2026-04-28T07:53:42.857Z</time></trkpt><trkpt lat="39.28249935881073" lon="8.745508776749048"><ele>67.0</ele><time>2026-04-28T07:53:43.857Z</time></trkpt><trkpt lat="39.282544540071754" lon="8.745612216402131"><ele>67.0</ele><time>2026-04-28T07:53:44.857Z</time></trkpt><trkpt lat="39.282589442408835" lon="8.745714674424029"><ele>67.0</ele><time>2026-04-28T07:53:45.857Z</time></trkpt><trkpt lat="39.282635374372795" lon="8.745825084587006"><ele>67.0</ele><time>2026-04-28T07:53:46.857Z</time></trkpt><trkpt lat="39.28268423412298" lon="8.745937271226156"><ele>66.8</ele><time>2026-04-28T07:53:47.857Z</time></trkpt><trkpt lat="39.28273475633014" lon="8.74605077814697"><ele>66.6</ele><time>2026-04-28T07:53:48.857Z</time></trkpt><trkpt lat="39.282781779536066" lon="8.746166888580447"><ele>66.39999999999999</ele><time>2026-04-28T07:53:49.857Z</time></trkpt><trkpt lat="39.28283063365732" lon="8.746284981216148"><ele>66.2</ele><time>2026-04-28T07:53:50.857Z</time></trkpt><trkpt lat="39.282876710405766" lon="8.746396287283085"><ele>66.0</ele><time>2026-04-28T07:53:51.857Z</time></trkpt><trkpt lat="39.28292312152581" lon="8.746509693421606"><ele>66.0</ele><time>2026-04-28T07:53:52.857Z</time></trkpt><trkpt lat="39.28296582607273" lon="8.746625320910923"><ele>66.0</ele><time>2026-04-28T07:53:53.857Z</time></trkpt><trkpt lat="39.28300324474469" lon="8.746735566053133"><ele>66.0</ele><time>2026-04-28T07:53:54.857Z</time></trkpt><trkpt lat="39.28304737493188" lon="8.746843768225215"><ele>66.0</ele><time>2026-04-28T07:53:55.857Z</time></trkpt><trkpt lat="39.28308989578782" lon="8.7469521537626"><ele>66.0</ele><time>2026-04-28T07:53:56.857Z</time></trkpt><trkpt lat="39.28313472407805" lon="8.747062681673848"><ele>66.16666666666667</ele><time>2026-04-28T07:53:57.857Z</time></trkpt><trkpt lat="39.28317912350573" lon="8.7471548422281"><ele>66.33333333333333</ele><time>2026-04-28T07:53:58.857Z</time></trkpt><trkpt lat="39.28321587831613" lon="8.747250610534133"><ele>66.5</ele><time>2026-04-28T07:53:59.857Z</time></trkpt><trkpt lat="39.28325305644625" lon="8.747354339140905"><ele>66.66666666666666</ele><time>2026-04-28T07:54:00.857Z</time></trkpt><trkpt lat="39.28328621509164" lon="8.747445170851147"><ele>66.83333333333333</ele><time>2026-04-28T07:54:01.857Z</time></trkpt><trkpt lat="39.28331595756466" lon="8.747527352052614"><ele>67.0</ele><time>2026-04-28T07:54:02.857Z</time></trkpt><trkpt lat="39.283351185732776" lon="8.747610362742849"><ele>67.0</ele><time>2026-04-28T07:54:03.857Z</time></trkpt><trkpt lat="39.28338599377325" lon="8.747687061816302"><ele>67.0</ele><time>2026-04-28T07:54:04.857Z</time></trkpt><trkpt lat="39.28342507873897" lon="8.747782708264292"><ele>67.0</ele><time>2026-04-28T07:54:05.857Z</time></trkpt><trkpt lat="39.28345829321795" lon="8.74787484902846"><ele>67.0</ele><time>2026-04-28T07:54:06.857Z</time></trkpt><trkpt lat="39.28349567133873" lon="8.747976893815839"><ele>67.0</ele><time>2026-04-28T07:54:07.857Z</time></trkpt><trkpt lat="39.283539649286844" lon="8.748079228176627"><ele>67.0</ele><time>2026-04-28T07:54:08.857Z</time></trkpt><trkpt lat="39.2835848928837" lon="8.748184589637106"><ele>66.8</ele><time>2026-04-28T07:54:09.857Z</time></trkpt><trkpt lat="39.28363038210972" lon="8.748288886142847"><ele>66.6</ele><time>2026-04-28T07:54:10.857Z</time></trkpt><trkpt lat="39.28367641226828" lon="8.74838970010334"><ele>66.39999999999999</ele><time>2026-04-28T07:54:11.857Z</time></trkpt><trkpt lat="39.28372505704888" lon="8.748497759405568"><ele>66.2</ele><time>2026-04-28T07:54:12.856Z</time></trkpt><trkpt lat="39.283775122943716" lon="8.748610662612228"><ele>66.0</ele><time>2026-04-28T07:54:13.856Z</time></trkpt><trkpt lat="39.283828181660645" lon="8.7487277522533"><ele>66.0</ele><time>2026-04-28T07:54:14.856Z</time></trkpt><trkpt lat="39.28387899133863" lon="8.748846325506008"><ele>66.0</ele><time>2026-04-28T07:54:15.856Z</time></trkpt><trkpt lat="39.283929359182245" lon="8.748963909224331"><ele>66.0</ele><time>2026-04-28T07:54:16.856Z</time></trkpt><trkpt lat="39.283973866876316" lon="8.749079049219855"><ele>66.0</ele><time>2026-04-28T07:54:17.856Z</time></trkpt><trkpt lat="39.28401437044153" lon="8.749190241682154"><ele>66.0</ele><time>2026-04-28T07:54:18.856Z</time></trkpt><trkpt lat="39.2840556633397" lon="8.749303208904099"><ele>65.8</ele><time>2026-04-28T07:54:19.856Z</time></trkpt><trkpt lat="39.284094758669255" lon="8.749408107848565"><ele>65.6</ele><time>2026-04-28T07:54:20.856Z</time></trkpt><trkpt lat="39.284140991182454" lon="8.749518173886713"><ele>65.4</ele><time>2026-04-28T07:54:21.856Z</time></trkpt><trkpt lat="39.284179300438055" lon="8.749623410816875"><ele>65.2</ele><time>2026-04-28T07:54:22.856Z</time></trkpt><trkpt lat="39.284212938346364" lon="8.749728291845964"><ele>65.0</ele><time>2026-04-28T07:54:23.856Z</time></trkpt><trkpt lat="39.28425312729811" lon="8.749834209834262"><ele>65.0</ele><time>2026-04-28T07:54:24.856Z</time></trkpt><trkpt lat="39.284299320153615" lon="8.749940229555234"><ele>65.0</ele><time>2026-04-28T07:54:25.856Z</time></trkpt><trkpt lat="39.284350484493146" lon="8.750058478591027"><ele>65.0</ele><time>2026-04-28T07:54:26.856Z</time></trkpt><trkpt lat="39.28439535197816" lon="8.750174173189924"><ele>65.0</ele><time>2026-04-28T07:54:27.856Z</time></trkpt><trkpt lat="39.2844381903777" lon="8.750287512294612"><ele>65.0</ele><time>2026-04-28T07:54:28.856Z</time></trkpt><trkpt lat="39.28447953882907" lon="8.750376950467414"><ele>65.0</ele><time>2026-04-28T07:54:29.856Z</time></trkpt><trkpt lat="39.28452252115" lon="8.750484403488818"><ele>65.0</ele><time>2026-04-28T07:54:30.856Z</time></trkpt><trkpt lat="39.2845672956666" lon="8.750590551836003"><ele>65.0</ele><time>2026-04-28T07:54:31.856Z</time></trkpt><trkpt lat="39.284615249039575" lon="8.75069826627849"><ele>65.0</ele><time>2026-04-28T07:54:32.856Z</time></trkpt><trkpt lat="39.2846619857379" lon="8.75080305803756"><ele>65.0</ele><time>2026-04-28T07:54:33.856Z</time></trkpt><trkpt lat="39.28470256402701" lon="8.750909556593154"><ele>65.0</ele><time>2026-04-28T07:54:34.856Z</time></trkpt><trkpt lat="39.28474683784567" lon="8.7510132607728"><ele>65.0</ele><time>2026-04-28T07:54:35.856Z</time></trkpt><trkpt lat="39.284791398070226" lon="8.751118452866839"><ele>65.0</ele><time>2026-04-28T07:54:36.856Z</time></trkpt><trkpt lat="39.28483652703143" lon="8.751225141036247"><ele>65.0</ele><time>2026-04-28T07:54:37.856Z</time></trkpt><trkpt lat="39.28488279097357" lon="8.75132868675089"><ele>65.0</ele><time>2026-04-28T07:54:38.856Z</time></trkpt><trkpt lat="39.2849261521364" lon="8.751437887190255"><ele>65.0</ele><time>2026-04-28T07:54:39.856Z</time></trkpt><trkpt lat="39.28496922695445" lon="8.751545588764083"><ele>65.0</ele><time>2026-04-28T07:54:40.856Z</time></trkpt><trkpt lat="39.28501100543416" lon="8.751652250367624"><ele>65.0</ele><time>2026-04-28T07:54:41.856Z</time></trkpt><trkpt lat="39.285043258570184" lon="8.751750768665024"><ele>65.0</ele><time>2026-04-28T07:54:42.856Z</time></trkpt><trkpt lat="39.2850687097364" lon="8.751832270584497"><ele>65.0</ele><time>2026-04-28T07:54:43.856Z</time></trkpt><trkpt lat="39.28509631314741" lon="8.751920450997655"><ele>65.0</ele><time>2026-04-28T07:54:44.856Z</time></trkpt><trkpt lat="39.28512485599082" lon="8.752000635493932"><ele>65.0</ele><time>2026-04-28T07:54:45.856Z</time></trkpt><trkpt lat="39.28517643249866" lon="8.752070321373205"><ele>65.0</ele><time>2026-04-28T07:54:47.856Z</time></trkpt><trkpt lat="39.28521399044863" lon="8.75216116736906"><ele>65.0</ele><time>2026-04-28T07:54:50.856Z</time></trkpt><trkpt lat="39.28523312417361" lon="8.752239948801293"><ele>65.0</ele><time>2026-04-28T07:54:51.856Z</time></trkpt><trkpt lat="39.285265613375195" lon="8.752331126203472"><ele>65.0</ele><time>2026-04-28T07:54:52.856Z</time></trkpt><trkpt lat="39.28530250256753" lon="8.752426915098868"><ele>65.0</ele><time>2026-04-28T07:54:53.856Z</time></trkpt><trkpt lat="39.28533835114623" lon="8.75250930641477"><ele>65.00000000000001</ele><time>2026-04-28T07:54:54.856Z</time></trkpt><trkpt lat="39.28537637891113" lon="8.752592306606834"><ele>65.0</ele><time>2026-04-28T07:54:55.856Z</time></trkpt><trkpt lat="39.28542012396435" lon="8.75267388959341"><ele>65.0</ele><time>2026-04-28T07:54:56.856Z</time></trkpt><trkpt lat="39.28545683349711" lon="8.752750159333507"><ele>65.0</ele><time>2026-04-28T07:54:57.856Z</time></trkpt><trkpt lat="39.28549718060171" lon="8.752820776776748"><ele>65.0</ele><time>2026-04-28T07:54:58.856Z</time></trkpt><trkpt lat="39.28553634157219" lon="8.752893237848363"><ele>65.00000000000001</ele><time>2026-04-28T07:54:59.856Z</time></trkpt><trkpt lat="39.28556780780376" lon="8.752984869566362"><ele>65.0</ele><time>2026-04-28T07:55:00.856Z</time></trkpt><trkpt lat="39.28560696647666" lon="8.753083488189008"><ele>65.0</ele><time>2026-04-28T07:55:01.856Z</time></trkpt><trkpt lat="39.28564128124538" lon="8.753170796508249"><ele>65.0</ele><time>2026-04-28T07:55:02.856Z</time></trkpt><trkpt lat="39.28570029309093" lon="8.75330534113117"><ele>65.0</ele><time>2026-04-28T07:55:04.856Z</time></trkpt><trkpt lat="39.28575177228972" lon="8.753413021021446"><ele>65.0</ele><time>2026-04-28T07:55:06.856Z</time></trkpt><trkpt lat="39.285785673280685" lon="8.753524906445042"><ele>65.0</ele><time>2026-04-28T07:55:08.856Z</time></trkpt><trkpt lat="39.28581738841586" lon="8.753667558804986"><ele>64.83333333333334</ele><time>2026-04-28T07:55:10.856Z</time></trkpt><trkpt lat="39.28584950132548" lon="8.753746996432906"><ele>64.66666666666667</ele><time>2026-04-28T07:55:11.856Z</time></trkpt><trkpt lat="39.285887438451994" lon="8.753826370589033"><ele>64.5</ele><time>2026-04-28T07:55:12.856Z</time></trkpt><trkpt lat="39.28592115405467" lon="8.753911425020949"><ele>64.33333333333333</ele><time>2026-04-28T07:55:13.856Z</time></trkpt><trkpt lat="39.28595839301945" lon="8.754003542120751"><ele>64.16666666666666</ele><time>2026-04-28T07:55:14.855Z</time></trkpt><trkpt lat="39.285995522421906" lon="8.7540969238611"><ele>64.0</ele><time>2026-04-28T07:55:15.855Z</time></trkpt><trkpt lat="39.286037621639366" lon="8.754195761266775"><ele>63.99999999999999</ele><time>2026-04-28T07:55:16.855Z</time></trkpt><trkpt lat="39.286077518586225" lon="8.754299477471555"><ele>64.0</ele><time>2026-04-28T07:55:17.855Z</time></trkpt><trkpt lat="39.286115315333916" lon="8.754391125880213"><ele>64.0</ele><time>2026-04-28T07:55:18.855Z</time></trkpt><trkpt lat="39.2861506691494" lon="8.75447544680109"><ele>64.0</ele><time>2026-04-28T07:55:19.855Z</time></trkpt><trkpt lat="39.2861880968773" lon="8.754545233702023"><ele>63.99999999999999</ele><time>2026-04-28T07:55:20.855Z</time></trkpt><trkpt lat="39.286237319894056" lon="8.754636828308085"><ele>64.0</ele><time>2026-04-28T07:55:22.855Z</time></trkpt><trkpt lat="39.28627512589913" lon="8.754767540262302"><ele>63.99999999999999</ele><time>2026-04-28T07:55:24.855Z</time></trkpt><trkpt lat="39.286303265395155" lon="8.75485085184014"><ele>64.0</ele><time>2026-04-28T07:55:25.855Z</time></trkpt><trkpt lat="39.28633438904781" lon="8.754936926748723"><ele>64.0</ele><time>2026-04-28T07:55:26.854Z</time></trkpt><trkpt lat="39.286368941001584" lon="8.75502371169338"><ele>64.0</ele><time>2026-04-28T07:55:27.855Z</time></trkpt><trkpt lat="39.2864415903351" lon="8.755121935917822"><ele>63.99999999999999</ele><time>2026-04-28T07:55:29.855Z</time></trkpt><trkpt lat="39.28651649939924" lon="8.755212079819085"><ele>64.0</ele><time>2026-04-28T07:55:31.855Z</time></trkpt><trkpt lat="39.2865553599295" lon="8.755342463167489"><ele>63.83333333333333</ele><time>2026-04-28T07:55:33.855Z</time></trkpt><trkpt lat="39.28657443668799" lon="8.755437053101874"><ele>63.666666666666664</ele><time>2026-04-28T07:55:34.855Z</time></trkpt><trkpt lat="39.28659681794677" lon="8.75553979811459"><ele>63.5</ele><time>2026-04-28T07:55:35.855Z</time></trkpt><trkpt lat="39.286630103406324" lon="8.755635036285803"><ele>63.33333333333333</ele><time>2026-04-28T07:55:36.855Z</time></trkpt><trkpt lat="39.28666988407722" lon="8.755731940132002"><ele>63.166666666666664</ele><time>2026-04-28T07:55:37.855Z</time></trkpt><trkpt lat="39.28671403324225" lon="8.755835354689486"><ele>63.0</ele><time>2026-04-28T07:55:38.855Z</time></trkpt><trkpt lat="39.28675563865796" lon="8.755943214872227"><ele>62.8</ele><time>2026-04-28T07:55:39.855Z</time></trkpt><trkpt lat="39.286801565238555" lon="8.756050001216163"><ele>62.599999999999994</ele><time>2026-04-28T07:55:40.855Z</time></trkpt><trkpt lat="39.286848761756275" lon="8.75616259754198"><ele>62.400000000000006</ele><time>2026-04-28T07:55:41.855Z</time></trkpt><trkpt lat="39.28689608444896" lon="8.756275135823989"><ele>62.2</ele><time>2026-04-28T07:55:42.855Z</time></trkpt><trkpt lat="39.28694204184227" lon="8.756388168044637"><ele>62.0</ele><time>2026-04-28T07:55:43.855Z</time></trkpt><trkpt lat="39.28698765635604" lon="8.756502652466688"><ele>62.0</ele><time>2026-04-28T07:55:44.855Z</time></trkpt><trkpt lat="39.28703723305661" lon="8.75662113527289"><ele>62.0</ele><time>2026-04-28T07:55:45.855Z</time></trkpt><trkpt lat="39.28709062428526" lon="8.756734627509928"><ele>62.0</ele><time>2026-04-28T07:55:46.855Z</time></trkpt><trkpt lat="39.287150781096756" lon="8.756849577829593"><ele>62.0</ele><time>2026-04-28T07:55:47.855Z</time></trkpt><trkpt lat="39.28720297863509" lon="8.756962843951081"><ele>62.0</ele><time>2026-04-28T07:55:48.855Z</time></trkpt><trkpt lat="39.287257197914826" lon="8.757084273544217"><ele>62.0</ele><time>2026-04-28T07:55:49.855Z</time></trkpt><trkpt lat="39.28730672055185" lon="8.757209532579607"><ele>62.0</ele><time>2026-04-28T07:55:50.855Z</time></trkpt><trkpt lat="39.28734942250267" lon="8.757328829810067"><ele>62.0</ele><time>2026-04-28T07:55:51.855Z</time></trkpt><trkpt lat="39.28738842815688" lon="8.757432353098007"><ele>62.0</ele><time>2026-04-28T07:55:52.855Z</time></trkpt><trkpt lat="39.28742410668779" lon="8.757528218836116"><ele>62.0</ele><time>2026-04-28T07:55:53.855Z</time></trkpt><trkpt lat="39.28747839719189" lon="8.757659839214144"><ele>62.00000000000001</ele><time>2026-04-28T07:55:55.855Z</time></trkpt><trkpt lat="39.28751723012011" lon="8.7577523114236"><ele>62.0</ele><time>2026-04-28T07:55:56.855Z</time></trkpt><trkpt lat="39.28755014426883" lon="8.757844019372994"><ele>62.0</ele><time>2026-04-28T07:55:57.855Z</time></trkpt><trkpt lat="39.28757869890419" lon="8.75792245184419"><ele>62.0</ele><time>2026-04-28T07:55:58.855Z</time></trkpt><trkpt lat="39.28761273881139" lon="8.75800118627468"><ele>62.00000000000001</ele><time>2026-04-28T07:55:59.855Z</time></trkpt><trkpt lat="39.287652005028875" lon="8.758090148998404"><ele>62.0</ele><time>2026-04-28T07:56:00.855Z</time></trkpt><trkpt lat="39.287691310735845" lon="8.75817815490086"><ele>62.00000000000001</ele><time>2026-04-28T07:56:01.855Z</time></trkpt><trkpt lat="39.28773005144383" lon="8.758274385409441"><ele>62.0</ele><time>2026-04-28T07:56:02.855Z</time></trkpt><trkpt lat="39.28776512962047" lon="8.758368090443303"><ele>62.0</ele><time>2026-04-28T07:56:03.855Z</time></trkpt><trkpt lat="39.287804371380105" lon="8.758463739903489"><ele>62.0</ele><time>2026-04-28T07:56:04.855Z</time></trkpt><trkpt lat="39.28783509801383" lon="8.75854979175301"><ele>62.00000000000001</ele><time>2026-04-28T07:56:05.855Z</time></trkpt><trkpt lat="39.28786768471251" lon="8.758630484457353"><ele>62.0</ele><time>2026-04-28T07:56:06.855Z</time></trkpt><trkpt lat="39.28790017350945" lon="8.758714367999596"><ele>61.833333333333336</ele><time>2026-04-28T07:56:07.855Z</time></trkpt><trkpt lat="39.28793760091907" lon="8.75880864731758"><ele>61.66666666666667</ele><time>2026-04-28T07:56:08.855Z</time></trkpt><trkpt lat="39.28797602826062" lon="8.758901168277985"><ele>61.5</ele><time>2026-04-28T07:56:09.855Z</time></trkpt><trkpt lat="39.28800937884788" lon="8.758990590745409"><ele>61.33333333333333</ele><time>2026-04-28T07:56:10.855Z</time></trkpt><trkpt lat="39.28804290979703" lon="8.759086619618486"><ele>61.166666666666664</ele><time>2026-04-28T07:56:11.855Z</time></trkpt><trkpt lat="39.28808038916999" lon="8.759193593006088"><ele>61.0</ele><time>2026-04-28T07:56:12.855Z</time></trkpt><trkpt lat="39.28811921619378" lon="8.759295452888141"><ele>61.4</ele><time>2026-04-28T07:56:13.855Z</time></trkpt><trkpt lat="39.288152958844655" lon="8.759394809493864"><ele>61.8</ele><time>2026-04-28T07:56:14.855Z</time></trkpt><trkpt lat="39.28819304890064" lon="8.759502811244339"><ele>62.199999999999996</ele><time>2026-04-28T07:56:15.855Z</time></trkpt><trkpt lat="39.288242075305334" lon="8.759613751163167"><ele>62.599999999999994</ele><time>2026-04-28T07:56:16.855Z</time></trkpt><trkpt lat="39.28828980370173" lon="8.759722957454482"><ele>63.0</ele><time>2026-04-28T07:56:17.855Z</time></trkpt><trkpt lat="39.28838509962203" lon="8.759888704907189"><ele>63.0</ele><time>2026-04-28T07:56:18.855Z</time></trkpt><trkpt lat="39.28843080140187" lon="8.760000123921431"><ele>63.0</ele><time>2026-04-28T07:56:19.855Z</time></trkpt><trkpt lat="39.28847477693387" lon="8.76011293020704"><ele>63.0</ele><time>2026-04-28T07:56:20.855Z</time></trkpt><trkpt lat="39.288520164823204" lon="8.76022056395617"><ele>63.0</ele><time>2026-04-28T07:56:21.855Z</time></trkpt><trkpt lat="39.288568746140925" lon="8.760332448731342"><ele>63.0</ele><time>2026-04-28T07:56:22.855Z</time></trkpt><trkpt lat="39.28861444540844" lon="8.760446313605572"><ele>62.8</ele><time>2026-04-28T07:56:23.855Z</time></trkpt><trkpt lat="39.28866002779369" lon="8.76056268753918"><ele>62.599999999999994</ele><time>2026-04-28T07:56:24.855Z</time></trkpt><trkpt lat="39.288705251243854" lon="8.760676440122303"><ele>62.400000000000006</ele><time>2026-04-28T07:56:25.855Z</time></trkpt><trkpt lat="39.28874859791792" lon="8.760785905122145"><ele>62.2</ele><time>2026-04-28T07:56:26.855Z</time></trkpt><trkpt lat="39.288786752646985" lon="8.760887116580136"><ele>62.0</ele><time>2026-04-28T07:56:27.855Z</time></trkpt><trkpt lat="39.28882026493445" lon="8.76099557992901"><ele>62.0</ele><time>2026-04-28T07:56:29.855Z</time></trkpt><trkpt lat="39.28886344021905" lon="8.761126692171343"><ele>62.0</ele><time>2026-04-28T07:56:31.855Z</time></trkpt><trkpt lat="39.28890673086515" lon="8.761225027585759"><ele>62.0</ele><time>2026-04-28T07:56:32.855Z</time></trkpt><trkpt lat="39.28895430026375" lon="8.761340544588403"><ele>62.0</ele><time>2026-04-28T07:56:33.855Z</time></trkpt><trkpt lat="39.28899854963338" lon="8.761456750628064"><ele>62.0</ele><time>2026-04-28T07:56:34.855Z</time></trkpt><trkpt lat="39.28904641211519" lon="8.761569293500024"><ele>62.2</ele><time>2026-04-28T07:56:35.855Z</time></trkpt><trkpt lat="39.28909434030561" lon="8.761683914633021"><ele>62.400000000000006</ele><time>2026-04-28T07:56:36.855Z</time></trkpt><trkpt lat="39.28914247647273" lon="8.761801763105192"><ele>62.599999999999994</ele><time>2026-04-28T07:56:37.855Z</time></trkpt><trkpt lat="39.28919625398147" lon="8.761914701133296"><ele>62.8</ele><time>2026-04-28T07:56:38.855Z</time></trkpt><trkpt lat="39.289239302548424" lon="8.762018043506414"><ele>63.0</ele><time>2026-04-28T07:56:39.855Z</time></trkpt><trkpt lat="39.28927773767594" lon="8.762118218413498"><ele>62.714285714285715</ele><time>2026-04-28T07:56:40.855Z</time></trkpt><trkpt lat="39.28931402432179" lon="8.762201279241976"><ele>62.42857142857143</ele><time>2026-04-28T07:56:41.855Z</time></trkpt><trkpt lat="39.28935278093839" lon="8.762280385710506"><ele>62.14285714285714</ele><time>2026-04-28T07:56:42.855Z</time></trkpt><trkpt lat="39.28938616522201" lon="8.762361875159458"><ele>61.857142857142854</ele><time>2026-04-28T07:56:43.855Z</time></trkpt><trkpt lat="39.28941939129968" lon="8.7624511198979"><ele>61.57142857142857</ele><time>2026-04-28T07:56:44.855Z</time></trkpt><trkpt lat="39.28945326085227" lon="8.762534316422398"><ele>61.28571428571428</ele><time>2026-04-28T07:56:45.855Z</time></trkpt><trkpt lat="39.28948827612717" lon="8.76262458864206"><ele>60.99999999999999</ele><time>2026-04-28T07:56:46.855Z</time></trkpt><trkpt lat="39.28952927857824" lon="8.762723571150472"><ele>61.0</ele><time>2026-04-28T07:56:47.855Z</time></trkpt><trkpt lat="39.28957268027795" lon="8.762831217322413"><ele>60.99999999999999</ele><time>2026-04-28T07:56:48.855Z</time></trkpt><trkpt lat="39.289617162169165" lon="8.762940438730755"><ele>60.99999999999999</ele><time>2026-04-28T07:56:49.855Z</time></trkpt><trkpt lat="39.289665167848135" lon="8.763060852145323"><ele>61.0</ele><time>2026-04-28T07:56:50.855Z</time></trkpt><trkpt lat="39.28971090223213" lon="8.763181153174356"><ele>61.0</ele><time>2026-04-28T07:56:51.855Z</time></trkpt><trkpt lat="39.289761475177215" lon="8.763301939245776"><ele>61.199999999999996</ele><time>2026-04-28T07:56:52.855Z</time></trkpt><trkpt lat="39.289811850019724" lon="8.763420145268967"><ele>61.39999999999999</ele><time>2026-04-28T07:56:53.855Z</time></trkpt><trkpt lat="39.28986326254103" lon="8.763542783958291"><ele>61.6</ele><time>2026-04-28T07:56:54.855Z</time></trkpt><trkpt lat="39.28991297818891" lon="8.763667235158929"><ele>61.8</ele><time>2026-04-28T07:56:55.855Z</time></trkpt><trkpt lat="39.28996276918839" lon="8.763791028948502"><ele>62.0</ele><time>2026-04-28T07:56:56.855Z</time></trkpt><trkpt lat="39.290013068023626" lon="8.763911647368195"><ele>61.6</ele><time>2026-04-28T07:56:57.855Z</time></trkpt><trkpt lat="39.29006325009931" lon="8.764035312548472"><ele>61.2</ele><time>2026-04-28T07:56:58.855Z</time></trkpt><trkpt lat="39.290109216203696" lon="8.764159189370192"><ele>60.8</ele><time>2026-04-28T07:56:59.855Z</time></trkpt><trkpt lat="39.2901558573042" lon="8.764283464706027"><ele>60.4</ele><time>2026-04-28T07:57:00.855Z</time></trkpt><trkpt lat="39.29020324217627" lon="8.7644080619355"><ele>60.0</ele><time>2026-04-28T07:57:01.855Z</time></trkpt><trkpt lat="39.29024721807333" lon="8.764539133764464"><ele>59.8</ele><time>2026-04-28T07:57:02.855Z</time></trkpt><trkpt lat="39.29028323897119" lon="8.764674980458722"><ele>59.6</ele><time>2026-04-28T07:57:03.855Z</time></trkpt><trkpt lat="39.290319775866415" lon="8.764810088658296"><ele>59.400000000000006</ele><time>2026-04-28T07:57:04.855Z</time></trkpt><trkpt lat="39.290351152165194" lon="8.764944996258249"><ele>59.2</ele><time>2026-04-28T07:57:05.855Z</time></trkpt><trkpt lat="39.29037911942514" lon="8.76507930576288"><ele>59.0</ele><time>2026-04-28T07:57:06.855Z</time></trkpt><trkpt lat="39.29040985502195" lon="8.7652175555882"><ele>59.0</ele><time>2026-04-28T07:57:07.855Z</time></trkpt><trkpt lat="39.290437981232536" lon="8.76535661994911"><ele>59.0</ele><time>2026-04-28T07:57:08.855Z</time></trkpt><trkpt lat="39.290468561121244" lon="8.765503395535347"><ele>59.0</ele><time>2026-04-28T07:57:09.855Z</time></trkpt><trkpt lat="39.29050322188482" lon="8.765643939863725"><ele>59.0</ele><time>2026-04-28T07:57:10.855Z</time></trkpt><trkpt lat="39.29054202310967" lon="8.765786795369204"><ele>59.0</ele><time>2026-04-28T07:57:11.855Z</time></trkpt><trkpt lat="39.290574409100195" lon="8.765931404573747"><ele>59.0</ele><time>2026-04-28T07:57:12.855Z</time></trkpt><trkpt lat="39.29059571558706" lon="8.766083060454099"><ele>59.0</ele><time>2026-04-28T07:57:13.855Z</time></trkpt><trkpt lat="39.29062766225068" lon="8.76624553848154"><ele>59.0</ele><time>2026-04-28T07:57:14.855Z</time></trkpt><trkpt lat="39.29066062280519" lon="8.766407507588204"><ele>59.5</ele><time>2026-04-28T07:57:15.855Z</time></trkpt><trkpt lat="39.29069191389379" lon="8.766573016558512"><ele>60.0</ele><time>2026-04-28T07:57:16.855Z</time></trkpt><trkpt lat="39.29072585971277" lon="8.766741978755194"><ele>60.5</ele><time>2026-04-28T07:57:17.855Z</time></trkpt><trkpt lat="39.29075830196341" lon="8.766905744503351"><ele>61.0</ele><time>2026-04-28T07:57:18.855Z</time></trkpt><trkpt lat="39.290787306344086" lon="8.76706857460579"><ele>61.0</ele><time>2026-04-28T07:57:19.855Z</time></trkpt><trkpt lat="39.29081886968276" lon="8.767239069953819"><ele>61.0</ele><time>2026-04-28T07:57:20.854Z</time></trkpt><trkpt lat="39.2908526594436" lon="8.767406603544622"><ele>61.0</ele><time>2026-04-28T07:57:21.854Z</time></trkpt><trkpt lat="39.2908838354929" lon="8.767564841026449"><ele>61.0</ele><time>2026-04-28T07:57:22.854Z</time></trkpt><trkpt lat="39.29091861852389" lon="8.767728177957116"><ele>61.0</ele><time>2026-04-28T07:57:23.854Z</time></trkpt><trkpt lat="39.29095382199161" lon="8.767895812766701"><ele>61.0</ele><time>2026-04-28T07:57:24.854Z</time></trkpt><trkpt lat="39.2909932941117" lon="8.768064124390078"><ele>61.0</ele><time>2026-04-28T07:57:25.854Z</time></trkpt><trkpt lat="39.291032546139256" lon="8.768233680462494"><ele>61.0</ele><time>2026-04-28T07:57:26.854Z</time></trkpt><trkpt lat="39.291067677619424" lon="8.768404481149117"><ele>61.0</ele><time>2026-04-28T07:57:27.854Z</time></trkpt><trkpt lat="39.29109838759973" lon="8.768570388053377"><ele>61.0</ele><time>2026-04-28T07:57:28.854Z</time></trkpt><trkpt lat="39.29113150585497" lon="8.76874103805875"><ele>61.0</ele><time>2026-04-28T07:57:29.853Z</time></trkpt><trkpt lat="39.291163804686555" lon="8.768902196007973"><ele>61.0</ele><time>2026-04-28T07:57:30.854Z</time></trkpt><trkpt lat="39.29120235342798" lon="8.769069380806854"><ele>61.0</ele><time>2026-04-28T07:57:31.854Z</time></trkpt><trkpt lat="39.291245908052346" lon="8.769225907222582"><ele>61.0</ele><time>2026-04-28T07:57:32.853Z</time></trkpt><trkpt lat="39.29129661907179" lon="8.7693810632109"><ele>61.0</ele><time>2026-04-28T07:57:33.854Z</time></trkpt><trkpt lat="39.291340878947075" lon="8.76954251875863"><ele>61.0</ele><time>2026-04-28T07:57:34.854Z</time></trkpt><trkpt lat="39.29137661159027" lon="8.76970507495858"><ele>61.0</ele><time>2026-04-28T07:57:35.854Z</time></trkpt><trkpt lat="39.29140714530959" lon="8.769873497087017"><ele>61.0</ele><time>2026-04-28T07:57:36.854Z</time></trkpt><trkpt lat="39.29144111522061" lon="8.770042595136458"><ele>61.0</ele><time>2026-04-28T07:57:37.854Z</time></trkpt><trkpt lat="39.291470104400105" lon="8.770211913291677"><ele>61.0</ele><time>2026-04-28T07:57:38.854Z</time></trkpt><trkpt lat="39.2915059940905" lon="8.770387253802546"><ele>61.0</ele><time>2026-04-28T07:57:39.854Z</time></trkpt><trkpt lat="39.29154418546488" lon="8.770563847791372"><ele>61.0</ele><time>2026-04-28T07:57:40.854Z</time></trkpt><trkpt lat="39.29157852676518" lon="8.770738847875691"><ele>61.0</ele><time>2026-04-28T07:57:41.854Z</time></trkpt><trkpt lat="39.29160839823557" lon="8.770909846116295"><ele>61.0</ele><time>2026-04-28T07:57:42.854Z</time></trkpt><trkpt lat="39.29164316408133" lon="8.771081921182551"><ele>61.0</ele><time>2026-04-28T07:57:43.854Z</time></trkpt><trkpt lat="39.29167842811221" lon="8.771256570854874"><ele>61.0</ele><time>2026-04-28T07:57:44.854Z</time></trkpt><trkpt lat="39.2917151918651" lon="8.7714262214014"><ele>61.0</ele><time>2026-04-28T07:57:45.854Z</time></trkpt><trkpt lat="39.29175366814385" lon="8.771594731374218"><ele>61.0</ele><time>2026-04-28T07:57:46.854Z</time></trkpt><trkpt lat="39.2917926060083" lon="8.771771063602127"><ele>61.0</ele><time>2026-04-28T07:57:47.854Z</time></trkpt><trkpt lat="39.29182838280566" lon="8.771933927372334"><ele>61.0</ele><time>2026-04-28T07:57:48.854Z</time></trkpt><trkpt lat="39.29186210802029" lon="8.772102159069211"><ele>61.0</ele><time>2026-04-28T07:57:49.854Z</time></trkpt><trkpt lat="39.29189210898282" lon="8.772274339718773"><ele>61.0</ele><time>2026-04-28T07:57:50.854Z</time></trkpt><trkpt lat="39.291922407728016" lon="8.772449369665052"><ele>61.0</ele><time>2026-04-28T07:57:51.854Z</time></trkpt><trkpt lat="39.29195818918834" lon="8.772626720517756"><ele>61.0</ele><time>2026-04-28T07:57:52.854Z</time></trkpt><trkpt lat="39.29199503131992" lon="8.772800182531103"><ele>61.0</ele><time>2026-04-28T07:57:53.854Z</time></trkpt><trkpt lat="39.29203211843941" lon="8.772982522500921"><ele>61.0</ele><time>2026-04-28T07:57:54.854Z</time></trkpt><trkpt lat="39.29206980825107" lon="8.773159722571448"><ele>61.0</ele><time>2026-04-28T07:57:55.854Z</time></trkpt><trkpt lat="39.292106921049374" lon="8.77332738445169"><ele>61.0</ele><time>2026-04-28T07:57:56.854Z</time></trkpt><trkpt lat="39.29214034602655" lon="8.77350044078515"><ele>61.0</ele><time>2026-04-28T07:57:57.854Z</time></trkpt><trkpt lat="39.29217245013546" lon="8.773669328021814"><ele>61.0</ele><time>2026-04-28T07:57:58.854Z</time></trkpt><trkpt lat="39.29220285061526" lon="8.773831426349691"><ele>61.0</ele><time>2026-04-28T07:57:59.854Z</time></trkpt><trkpt lat="39.2922390114487" lon="8.773977634465618"><ele>60.99999999999999</ele><time>2026-04-28T07:58:00.854Z</time></trkpt><trkpt lat="39.292274947624236" lon="8.774105004364332"><ele>60.99999999999999</ele><time>2026-04-28T07:58:01.854Z</time></trkpt><trkpt lat="39.29231040572475" lon="8.774221187984864"><ele>61.0</ele><time>2026-04-28T07:58:02.854Z</time></trkpt><trkpt lat="39.29234769407703" lon="8.774315171261623"><ele>61.0</ele><time>2026-04-28T07:58:03.854Z</time></trkpt><trkpt lat="39.29239204699062" lon="8.774389917545557"><ele>60.666666666666664</ele><time>2026-04-28T07:58:04.854Z</time></trkpt><trkpt lat="39.29242445969062" lon="8.774467926077149"><ele>60.33333333333333</ele><time>2026-04-28T07:58:05.854Z</time></trkpt><trkpt lat="39.292435114876945" lon="8.77455935457898"><ele>60.0</ele><time>2026-04-28T07:58:06.854Z</time></trkpt><trkpt lat="39.2924272644288" lon="8.774660517271574"><ele>59.66666666666667</ele><time>2026-04-28T07:58:07.854Z</time></trkpt><trkpt lat="39.292422439108954" lon="8.774773258537175"><ele>59.333333333333336</ele><time>2026-04-28T07:58:08.854Z</time></trkpt><trkpt lat="39.29242367035278" lon="8.774904769405302"><ele>59.0</ele><time>2026-04-28T07:58:09.854Z</time></trkpt><trkpt lat="39.29244885370799" lon="8.775056664308902"><ele>59.0</ele><time>2026-04-28T07:58:10.854Z</time></trkpt><trkpt lat="39.29248212943074" lon="8.775211836846688"><ele>59.0</ele><time>2026-04-28T07:58:11.854Z</time></trkpt><trkpt lat="39.29251578531388" lon="8.775364080636141"><ele>59.0</ele><time>2026-04-28T07:58:12.854Z</time></trkpt><trkpt lat="39.2925516892986" lon="8.775524547905773"><ele>59.0</ele><time>2026-04-28T07:58:13.854Z</time></trkpt><trkpt lat="39.2925853264513" lon="8.775686947338544"><ele>59.0</ele><time>2026-04-28T07:58:14.854Z</time></trkpt><trkpt lat="39.29261825044324" lon="8.775848258029674"><ele>59.0</ele><time>2026-04-28T07:58:15.854Z</time></trkpt><trkpt lat="39.29265036712271" lon="8.776014042246535"><ele>59.0</ele><time>2026-04-28T07:58:16.854Z</time></trkpt><trkpt lat="39.292686146049085" lon="8.776172682144953"><ele>59.0</ele><time>2026-04-28T07:58:17.854Z</time></trkpt><trkpt lat="39.29272442316382" lon="8.776336217185253"><ele>59.0</ele><time>2026-04-28T07:58:18.854Z</time></trkpt><trkpt lat="39.292766181790675" lon="8.776495633194651"><ele>59.0</ele><time>2026-04-28T07:58:19.854Z</time></trkpt><trkpt lat="39.29281024894894" lon="8.77665300114922"><ele>59.0</ele><time>2026-04-28T07:58:20.854Z</time></trkpt><trkpt lat="39.292848646552905" lon="8.77681780667561"><ele>59.0</ele><time>2026-04-28T07:58:21.854Z</time></trkpt><trkpt lat="39.292880927529204" lon="8.776988078536831"><ele>59.5</ele><time>2026-04-28T07:58:22.854Z</time></trkpt><trkpt lat="39.29291172107537" lon="8.777160207388668"><ele>60.0</ele><time>2026-04-28T07:58:23.854Z</time></trkpt><trkpt lat="39.29293975712898" lon="8.777324456068325"><ele>60.5</ele><time>2026-04-28T07:58:24.854Z</time></trkpt><trkpt lat="39.29296591580342" lon="8.777491067463693"><ele>61.0</ele><time>2026-04-28T07:58:25.854Z</time></trkpt><trkpt lat="39.29299877901275" lon="8.77766065120101"><ele>60.75</ele><time>2026-04-28T07:58:26.854Z</time></trkpt><trkpt lat="39.293033911395895" lon="8.777823087329338"><ele>60.5</ele><time>2026-04-28T07:58:27.854Z</time></trkpt><trkpt lat="39.293072159724474" lon="8.777975441968344"><ele>60.25</ele><time>2026-04-28T07:58:28.854Z</time></trkpt><trkpt lat="39.29310179766993" lon="8.7781278671524"><ele>60.0</ele><time>2026-04-28T07:58:29.854Z</time></trkpt><trkpt lat="39.293125205906534" lon="8.778259520880631"><ele>60.0</ele><time>2026-04-28T07:58:30.854Z</time></trkpt><trkpt lat="39.293145027980174" lon="8.778380653884346"><ele>60.0</ele><time>2026-04-28T07:58:31.854Z</time></trkpt><trkpt lat="39.29316943775981" lon="8.77851259384882"><ele>60.0</ele><time>2026-04-28T07:58:32.854Z</time></trkpt><trkpt lat="39.293190969457505" lon="8.77863297475743"><ele>60.0</ele><time>2026-04-28T07:58:33.854Z</time></trkpt><trkpt lat="39.29321352625044" lon="8.778747169242985"><ele>60.0</ele><time>2026-04-28T07:58:34.854Z</time></trkpt><trkpt lat="39.29323864831818" lon="8.778867555653138"><ele>60.0</ele><time>2026-04-28T07:58:35.854Z</time></trkpt><trkpt lat="39.29326258548107" lon="8.778991321449471"><ele>60.0</ele><time>2026-04-28T07:58:36.854Z</time></trkpt><trkpt lat="39.293286368104575" lon="8.779121595614054"><ele>60.0</ele><time>2026-04-28T07:58:37.854Z</time></trkpt><trkpt lat="39.29331463012339" lon="8.7792552071679"><ele>60.0</ele><time>2026-04-28T07:58:38.854Z</time></trkpt><trkpt lat="39.29334176582987" lon="8.779387526434837"><ele>60.0</ele><time>2026-04-28T07:58:39.854Z</time></trkpt><trkpt lat="39.2933709081375" lon="8.779520994465447"><ele>60.0</ele><time>2026-04-28T07:58:40.854Z</time></trkpt><trkpt lat="39.29340115703163" lon="8.779657856439194"><ele>60.0</ele><time>2026-04-28T07:58:41.854Z</time></trkpt><trkpt lat="39.293428794235304" lon="8.779792216953863"><ele>60.0</ele><time>2026-04-28T07:58:42.854Z</time></trkpt><trkpt lat="39.29345346988433" lon="8.779934893613929"><ele>60.0</ele><time>2026-04-28T07:58:43.854Z</time></trkpt><trkpt lat="39.2934809947528" lon="8.780079998913621"><ele>60.0</ele><time>2026-04-28T07:58:44.854Z</time></trkpt><trkpt lat="39.29351239097628" lon="8.78022146487888"><ele>60.0</ele><time>2026-04-28T07:58:45.854Z</time></trkpt><trkpt lat="39.293548331535064" lon="8.780362493388584"><ele>60.0</ele><time>2026-04-28T07:58:46.854Z</time></trkpt><trkpt lat="39.29358125222717" lon="8.78050642303907"><ele>60.0</ele><time>2026-04-28T07:58:47.854Z</time></trkpt><trkpt lat="39.29361193402992" lon="8.780659482628566"><ele>60.0</ele><time>2026-04-28T07:58:48.854Z</time></trkpt><trkpt lat="39.29364484369957" lon="8.78081026968089"><ele>60.0</ele><time>2026-04-28T07:58:49.854Z</time></trkpt><trkpt lat="39.29367123545567" lon="8.780954613838034"><ele>60.0</ele><time>2026-04-28T07:58:50.854Z</time></trkpt><trkpt lat="39.29370030072999" lon="8.781094192306687"><ele>60.0</ele><time>2026-04-28T07:58:51.854Z</time></trkpt><trkpt lat="39.29373055495035" lon="8.781246097979022"><ele>60.0</ele><time>2026-04-28T07:58:52.854Z</time></trkpt><trkpt lat="39.29376208602942" lon="8.781398720230582"><ele>60.0</ele><time>2026-04-28T07:58:53.854Z</time></trkpt><trkpt lat="39.29379570370616" lon="8.781553313669066"><ele>60.0</ele><time>2026-04-28T07:58:54.854Z</time></trkpt><trkpt lat="39.2938308345682" lon="8.781706129181131"><ele>60.0</ele><time>2026-04-28T07:58:55.854Z</time></trkpt><trkpt lat="39.29385634364985" lon="8.781854896078963"><ele>60.0</ele><time>2026-04-28T07:58:56.854Z</time></trkpt><trkpt lat="39.293879359463766" lon="8.781991391813994"><ele>60.0</ele><time>2026-04-28T07:58:57.854Z</time></trkpt><trkpt lat="39.29390268056006" lon="8.782096497808286"><ele>60.0</ele><time>2026-04-28T07:58:58.854Z</time></trkpt><trkpt lat="39.29392318451272" lon="8.782188918985728"><ele>60.0</ele><time>2026-04-28T07:58:59.854Z</time></trkpt><trkpt lat="39.293940113309915" lon="8.782269700110968"><ele>60.0</ele><time>2026-04-28T07:59:00.854Z</time></trkpt><trkpt lat="39.29397464638655" lon="8.782422226221176"><ele>60.0</ele><time>2026-04-28T07:59:02.854Z</time></trkpt><trkpt lat="39.29400230805911" lon="8.782548548702774"><ele>60.0</ele><time>2026-04-28T07:59:04.854Z</time></trkpt><trkpt lat="39.29402474767069" lon="8.78265953235092"><ele>60.0</ele><time>2026-04-28T07:59:06.854Z</time></trkpt><trkpt lat="39.29403442559948" lon="8.78275393748008"><ele>60.0</ele><time>2026-04-28T07:59:08.854Z</time></trkpt><trkpt lat="39.294048913078825" lon="8.78286063600838"><ele>60.0</ele><time>2026-04-28T07:59:10.854Z</time></trkpt><trkpt lat="39.29408718478637" lon="8.783014601464606"><ele>60.0</ele><time>2026-04-28T07:59:12.854Z</time></trkpt><trkpt lat="39.29410424687474" lon="8.78310077361019"><ele>60.0</ele><time>2026-04-28T07:59:13.854Z</time></trkpt><trkpt lat="39.29412276549986" lon="8.783203993175645"><ele>60.0</ele><time>2026-04-28T07:59:14.854Z</time></trkpt><trkpt lat="39.29414331511347" lon="8.783305674535928"><ele>60.0</ele><time>2026-04-28T07:59:15.854Z</time></trkpt><trkpt lat="39.294163275724266" lon="8.78340863623778"><ele>60.0</ele><time>2026-04-28T07:59:16.854Z</time></trkpt><trkpt lat="39.294184854728584" lon="8.783522319025593"><ele>60.0</ele><time>2026-04-28T07:59:17.854Z</time></trkpt><trkpt lat="39.29420774102114" lon="8.783636629427777"><ele>60.0</ele><time>2026-04-28T07:59:18.854Z</time></trkpt><trkpt lat="39.29423497728903" lon="8.78376112281944"><ele>60.0</ele><time>2026-04-28T07:59:19.854Z</time></trkpt><trkpt lat="39.29426468322827" lon="8.783885344305153"><ele>59.8</ele><time>2026-04-28T07:59:20.854Z</time></trkpt><trkpt lat="39.29429747929969" lon="8.784017131771718"><ele>59.6</ele><time>2026-04-28T07:59:21.854Z</time></trkpt><trkpt lat="39.29432381822822" lon="8.784144943626607"><ele>59.400000000000006</ele><time>2026-04-28T07:59:22.854Z</time></trkpt><trkpt lat="39.2943518907558" lon="8.784274661807235"><ele>59.2</ele><time>2026-04-28T07:59:23.854Z</time></trkpt><trkpt lat="39.29438172749723" lon="8.784399401873278"><ele>59.0</ele><time>2026-04-28T07:59:24.854Z</time></trkpt><trkpt lat="39.294412148311025" lon="8.784522401320476"><ele>59.0</ele><time>2026-04-28T07:59:25.854Z</time></trkpt><trkpt lat="39.29443697072081" lon="8.784649568276294"><ele>59.00000000000001</ele><time>2026-04-28T07:59:26.853Z</time></trkpt><trkpt lat="39.29445768663315" lon="8.784771445337226"><ele>59.00000000000001</ele><time>2026-04-28T07:59:27.853Z</time></trkpt><trkpt lat="39.29447948787449" lon="8.784896428117987"><ele>59.0</ele><time>2026-04-28T07:59:28.853Z</time></trkpt><trkpt lat="39.29450525048546" lon="8.785021952481491"><ele>59.0</ele><time>2026-04-28T07:59:29.852Z</time></trkpt><trkpt lat="39.294530849228316" lon="8.785150637821026"><ele>58.6</ele><time>2026-04-28T07:59:30.852Z</time></trkpt><trkpt lat="39.29455621040272" lon="8.785278695470739"><ele>58.2</ele><time>2026-04-28T07:59:31.852Z</time></trkpt><trkpt lat="39.2945807801224" lon="8.785402679199777"><ele>57.800000000000004</ele><time>2026-04-28T07:59:32.852Z</time></trkpt><trkpt lat="39.2946098269183" lon="8.785530847581995"><ele>57.400000000000006</ele><time>2026-04-28T07:59:33.852Z</time></trkpt><trkpt lat="39.29464003836472" lon="8.785666871666328"><ele>57.0</ele><time>2026-04-28T07:59:34.852Z</time></trkpt><trkpt lat="39.294664709345156" lon="8.785799684487577"><ele>57.0</ele><time>2026-04-28T07:59:35.852Z</time></trkpt><trkpt lat="39.29468638517777" lon="8.785926183987035"><ele>57.0</ele><time>2026-04-28T07:59:36.853Z</time></trkpt><trkpt lat="39.29470810054945" lon="8.786044053544193"><ele>57.0</ele><time>2026-04-28T07:59:37.853Z</time></trkpt><trkpt lat="39.294733555857064" lon="8.78616836219373"><ele>57.0</ele><time>2026-04-28T07:59:38.853Z</time></trkpt><trkpt lat="39.29475789123828" lon="8.78628763563795"><ele>57.0</ele><time>2026-04-28T07:59:39.852Z</time></trkpt><trkpt lat="39.29478071468746" lon="8.786401523747276"><ele>57.166666666666664</ele><time>2026-04-28T07:59:40.852Z</time></trkpt><trkpt lat="39.294805878224636" lon="8.786515130479852"><ele>57.33333333333333</ele><time>2026-04-28T07:59:41.852Z</time></trkpt><trkpt lat="39.29482910163692" lon="8.786623328983918"><ele>57.5</ele><time>2026-04-28T07:59:42.852Z</time></trkpt><trkpt lat="39.29485027324703" lon="8.786721453436458"><ele>57.666666666666664</ele><time>2026-04-28T07:59:43.852Z</time></trkpt><trkpt lat="39.29486969022534" lon="8.786813365943926"><ele>57.83333333333333</ele><time>2026-04-28T07:59:44.852Z</time></trkpt><trkpt lat="39.29488558428294" lon="8.786901568650656"><ele>58.0</ele><time>2026-04-28T07:59:45.852Z</time></trkpt><trkpt lat="39.2949003495879" lon="8.786992471848965"><ele>57.99999999999999</ele><time>2026-04-28T07:59:46.852Z</time></trkpt><trkpt lat="39.29491728180107" lon="8.787083156702542"><ele>58.0</ele><time>2026-04-28T07:59:47.852Z</time></trkpt><trkpt lat="39.29493206072354" lon="8.787167852557015"><ele>58.0</ele><time>2026-04-28T07:59:48.852Z</time></trkpt><trkpt lat="39.29494888132357" lon="8.787254525361963"><ele>58.0</ele><time>2026-04-28T07:59:49.852Z</time></trkpt><trkpt lat="39.29497064799227" lon="8.78734727469471"><ele>57.99999999999999</ele><time>2026-04-28T07:59:50.852Z</time></trkpt><trkpt lat="39.294993679652485" lon="8.787456432807659"><ele>58.0</ele><time>2026-04-28T07:59:51.852Z</time></trkpt><trkpt lat="39.29501942477384" lon="8.787587537884004"><ele>57.75</ele><time>2026-04-28T07:59:52.852Z</time></trkpt><trkpt lat="39.295050369452085" lon="8.787737566212764"><ele>57.5</ele><time>2026-04-28T07:59:53.852Z</time></trkpt><trkpt lat="39.29508444132728" lon="8.787901110866315"><ele>57.25</ele><time>2026-04-28T07:59:54.852Z</time></trkpt><trkpt lat="39.29511749517654" lon="8.788073931835441"><ele>57.0</ele><time>2026-04-28T07:59:55.852Z</time></trkpt><trkpt lat="39.29515298620885" lon="8.788250824827845"><ele>57.0</ele><time>2026-04-28T07:59:56.852Z</time></trkpt><trkpt lat="39.295190966005315" lon="8.788430251645996"><ele>57.0</ele><time>2026-04-28T07:59:57.852Z</time></trkpt><trkpt lat="39.29523075035841" lon="8.78860921800791"><ele>57.0</ele><time>2026-04-28T07:59:58.852Z</time></trkpt><trkpt lat="39.29527650737409" lon="8.788800564916748"><ele>57.0</ele><time>2026-04-28T07:59:59.852Z</time></trkpt><trkpt lat="39.2953175242942" lon="8.788992579143036"><ele>57.0</ele><time>2026-04-28T08:00:00.852Z</time></trkpt><trkpt lat="39.29535541562391" lon="8.789177188596565"><ele>57.0</ele><time>2026-04-28T08:00:01.852Z</time></trkpt><trkpt lat="39.295399047289195" lon="8.789380017175636"><ele>57.0</ele><time>2026-04-28T08:00:02.852Z</time></trkpt><trkpt lat="39.29544610777605" lon="8.789573675264155"><ele>56.66666666666667</ele><time>2026-04-28T08:00:03.852Z</time></trkpt><trkpt lat="39.29548856682369" lon="8.789760280619245"><ele>56.333333333333336</ele><time>2026-04-28T08:00:04.852Z</time></trkpt><trkpt lat="39.29552555762147" lon="8.789953130894862"><ele>56.0</ele><time>2026-04-28T08:00:05.852Z</time></trkpt><trkpt lat="39.295564142620314" lon="8.790158722235361"><ele>55.66666666666667</ele><time>2026-04-28T08:00:06.852Z</time></trkpt><trkpt lat="39.295601593694535" lon="8.79036591678407"><ele>55.33333333333333</ele><time>2026-04-28T08:00:07.852Z</time></trkpt><trkpt lat="39.29564114969154" lon="8.79056978089601"><ele>55.0</ele><time>2026-04-28T08:00:08.852Z</time></trkpt><trkpt lat="39.295683006676526" lon="8.790769017845953"><ele>55.0</ele><time>2026-04-28T08:00:09.852Z</time></trkpt><trkpt lat="39.29572900399223" lon="8.790974916968995"><ele>55.0</ele><time>2026-04-28T08:00:10.852Z</time></trkpt><trkpt lat="39.295770493187696" lon="8.791175312536913"><ele>55.0</ele><time>2026-04-28T08:00:11.852Z</time></trkpt><trkpt lat="39.295812106156376" lon="8.791382043961152"><ele>55.0</ele><time>2026-04-28T08:00:12.852Z</time></trkpt><trkpt lat="39.29585236320274" lon="8.791576861459387"><ele>55.0</ele><time>2026-04-28T08:00:13.852Z</time></trkpt><trkpt lat="39.295889824488185" lon="8.79176498600752"><ele>55.0</ele><time>2026-04-28T08:00:14.852Z</time></trkpt><trkpt lat="39.295927109948664" lon="8.791947784282435"><ele>54.75</ele><time>2026-04-28T08:00:15.852Z</time></trkpt><trkpt lat="39.29595807625441" lon="8.792113652328318"><ele>54.5</ele><time>2026-04-28T08:00:16.852Z</time></trkpt><trkpt lat="39.29598803231894" lon="8.792286129135016"><ele>54.25</ele><time>2026-04-28T08:00:17.852Z</time></trkpt><trkpt lat="39.296019172491654" lon="8.792450845235788"><ele>54.0</ele><time>2026-04-28T08:00:18.852Z</time></trkpt><trkpt lat="39.29605353329648" lon="8.792608661161546"><ele>54.0</ele><time>2026-04-28T08:00:19.852Z</time></trkpt><trkpt lat="39.29608431666571" lon="8.792765450391602"><ele>54.0</ele><time>2026-04-28T08:00:20.852Z</time></trkpt><trkpt lat="39.29611693428359" lon="8.792928898797278"><ele>54.0</ele><time>2026-04-28T08:00:21.852Z</time></trkpt><trkpt lat="39.29615166425775" lon="8.79308703258053"><ele>54.0</ele><time>2026-04-28T08:00:22.852Z</time></trkpt><trkpt lat="39.29617932645042" lon="8.793239945602803"><ele>54.0</ele><time>2026-04-28T08:00:23.852Z</time></trkpt><trkpt lat="39.2962126218313" lon="8.793397964135373"><ele>54.0</ele><time>2026-04-28T08:00:24.852Z</time></trkpt><trkpt lat="39.29624301050975" lon="8.793545147384256"><ele>54.0</ele><time>2026-04-28T08:00:25.852Z</time></trkpt><trkpt lat="39.29627384482825" lon="8.793695830668527"><ele>54.0</ele><time>2026-04-28T08:00:26.852Z</time></trkpt><trkpt lat="39.29630732521214" lon="8.793847049508495"><ele>54.0</ele><time>2026-04-28T08:00:27.852Z</time></trkpt><trkpt lat="39.29634091971792" lon="8.793994114280306"><ele>54.00000000000001</ele><time>2026-04-28T08:00:28.852Z</time></trkpt><trkpt lat="39.296370175860346" lon="8.794136081005117"><ele>54.00000000000001</ele><time>2026-04-28T08:00:29.852Z</time></trkpt><trkpt lat="39.29640279350311" lon="8.794268137947476"><ele>54.0</ele><time>2026-04-28T08:00:30.852Z</time></trkpt><trkpt lat="39.296427752072894" lon="8.794401099825732"><ele>54.0</ele><time>2026-04-28T08:00:31.852Z</time></trkpt><trkpt lat="39.29645633295154" lon="8.794513994899217"><ele>54.0</ele><time>2026-04-28T08:00:32.852Z</time></trkpt><trkpt lat="39.29647498507337" lon="8.794620705110214"><ele>54.0</ele><time>2026-04-28T08:00:33.852Z</time></trkpt><trkpt lat="39.296494335716815" lon="8.794715133494343"><ele>54.0</ele><time>2026-04-28T08:00:34.852Z</time></trkpt><trkpt lat="39.29651537303161" lon="8.79481615130627"><ele>54.0</ele><time>2026-04-28T08:00:35.852Z</time></trkpt><trkpt lat="39.29654493704599" lon="8.79489983928332"><ele>54.0</ele><time>2026-04-28T08:00:36.852Z</time></trkpt><trkpt lat="39.29658060559959" lon="8.794977526369202"><ele>54.0</ele><time>2026-04-28T08:00:37.852Z</time></trkpt><trkpt lat="39.296642662427296" lon="8.795064230110098"><ele>54.0</ele><time>2026-04-28T08:00:39.852Z</time></trkpt><trkpt lat="39.29664086855901" lon="8.795147541760008"><ele>54.0</ele><time>2026-04-28T08:00:41.852Z</time></trkpt><trkpt lat="39.29661457672504" lon="8.795260124226305"><ele>54.0</ele><time>2026-04-28T08:01:05.852Z</time></trkpt><trkpt lat="39.296637791304796" lon="8.795396027045783"><ele>54.0</ele><time>2026-04-28T08:01:07.852Z</time></trkpt><trkpt lat="39.2966533495358" lon="8.7954754565748"><ele>54.0</ele><time>2026-04-28T08:01:08.852Z</time></trkpt><trkpt lat="39.29667552446245" lon="8.79557438189575"><ele>54.0</ele><time>2026-04-28T08:01:09.852Z</time></trkpt><trkpt lat="39.296699895308535" lon="8.795677007567711"><ele>54.0</ele><time>2026-04-28T08:01:10.852Z</time></trkpt><trkpt lat="39.296707187698466" lon="8.795794688489305"><ele>54.00000000000001</ele><time>2026-04-28T08:01:11.852Z</time></trkpt><trkpt lat="39.29673172455823" lon="8.795914427109814"><ele>54.00000000000001</ele><time>2026-04-28T08:01:12.852Z</time></trkpt><trkpt lat="39.29675759004675" lon="8.796040649376742"><ele>54.0</ele><time>2026-04-28T08:01:13.852Z</time></trkpt><trkpt lat="39.29679689136933" lon="8.7961624682934"><ele>54.0</ele><time>2026-04-28T08:01:14.852Z</time></trkpt><trkpt lat="39.29682082271888" lon="8.796291496385779"><ele>54.0</ele><time>2026-04-28T08:01:15.852Z</time></trkpt><trkpt lat="39.296849041088" lon="8.796427513642268"><ele>54.00000000000001</ele><time>2026-04-28T08:01:16.852Z</time></trkpt><trkpt lat="39.29687705006692" lon="8.796564428521432"><ele>54.00000000000001</ele><time>2026-04-28T08:01:17.852Z</time></trkpt><trkpt lat="39.29690419971173" lon="8.7966938164103"><ele>54.0</ele><time>2026-04-28T08:01:18.852Z</time></trkpt><trkpt lat="39.29691813796236" lon="8.796823350104408"><ele>54.0</ele><time>2026-04-28T08:01:19.852Z</time></trkpt><trkpt lat="39.29694398240401" lon="8.796956592031002"><ele>54.0</ele><time>2026-04-28T08:01:20.852Z</time></trkpt><trkpt lat="39.29698637225717" lon="8.797093529251661"><ele>54.00000000000001</ele><time>2026-04-28T08:01:21.852Z</time></trkpt><trkpt lat="39.29700584802683" lon="8.797234061693695"><ele>54.00000000000001</ele><time>2026-04-28T08:01:22.852Z</time></trkpt><trkpt lat="39.297029311936065" lon="8.797373337190733"><ele>54.0</ele><time>2026-04-28T08:01:23.852Z</time></trkpt><trkpt lat="39.29705634772478" lon="8.797512380067856"><ele>54.0</ele><time>2026-04-28T08:01:24.852Z</time></trkpt><trkpt lat="39.29706169071298" lon="8.797655279267696"><ele>54.0</ele><time>2026-04-28T08:01:25.852Z</time></trkpt><trkpt lat="39.297077638987105" lon="8.797788215001681"><ele>54.00000000000001</ele><time>2026-04-28T08:01:26.852Z</time></trkpt><trkpt lat="39.297089625244695" lon="8.797905262862027"><ele>54.00000000000001</ele><time>2026-04-28T08:01:27.852Z</time></trkpt><trkpt lat="39.29711317844085" lon="8.798021869303001"><ele>54.0</ele><time>2026-04-28T08:01:28.852Z</time></trkpt><trkpt lat="39.297112928284925" lon="8.798139077399314"><ele>54.0</ele><time>2026-04-28T08:01:29.852Z</time></trkpt><trkpt lat="39.297123614189395" lon="8.798248330835037"><ele>54.0</ele><time>2026-04-28T08:01:30.852Z</time></trkpt><trkpt lat="39.297145590146066" lon="8.798357143714275"><ele>54.00000000000001</ele><time>2026-04-28T08:01:31.852Z</time></trkpt><trkpt lat="39.29715095234034" lon="8.79848844343136"><ele>54.00000000000001</ele><time>2026-04-28T08:01:32.851Z</time></trkpt><trkpt lat="39.29713660759991" lon="8.79861598408534"><ele>54.0</ele><time>2026-04-28T08:01:33.851Z</time></trkpt><trkpt lat="39.29713250386184" lon="8.798742077657373"><ele>54.0</ele><time>2026-04-28T08:01:34.851Z</time></trkpt><trkpt lat="39.29712673707572" lon="8.798875607345357"><ele>54.0</ele><time>2026-04-28T08:01:35.852Z</time></trkpt><trkpt lat="39.29711971266137" lon="8.79901075159286"><ele>54.00000000000001</ele><time>2026-04-28T08:01:36.851Z</time></trkpt><trkpt lat="39.297112639734955" lon="8.799146829101527"><ele>54.00000000000001</ele><time>2026-04-28T08:01:37.851Z</time></trkpt><trkpt lat="39.29710366322482" lon="8.799281996807933"><ele>54.0</ele><time>2026-04-28T08:01:38.851Z</time></trkpt><trkpt lat="39.29709326737278" lon="8.799422405789898"><ele>54.0</ele><time>2026-04-28T08:01:39.851Z</time></trkpt><trkpt lat="39.297073830573524" lon="8.799566219081143"><ele>53.75</ele><time>2026-04-28T08:01:40.851Z</time></trkpt><trkpt lat="39.29707402436136" lon="8.799728671775334"><ele>53.5</ele><time>2026-04-28T08:01:41.852Z</time></trkpt><trkpt lat="39.29705852664034" lon="8.799875837372023"><ele>53.25</ele><time>2026-04-28T08:01:42.851Z</time></trkpt><trkpt lat="39.29703287063873" lon="8.80001838598171"><ele>53.0</ele><time>2026-04-28T08:01:43.851Z</time></trkpt><trkpt lat="39.29701089962002" lon="8.800153983910167"><ele>53.0</ele><time>2026-04-28T08:01:44.851Z</time></trkpt><trkpt lat="39.297001748299806" lon="8.80030141845617"><ele>53.0</ele><time>2026-04-28T08:01:45.852Z</time></trkpt><trkpt lat="39.29697263388359" lon="8.800443694655886"><ele>53.0</ele><time>2026-04-28T08:01:46.852Z</time></trkpt><trkpt lat="39.296942440356325" lon="8.800589408538986"><ele>53.0</ele><time>2026-04-28T08:01:47.852Z</time></trkpt><trkpt lat="39.2969122662875" lon="8.800741831742219"><ele>53.0</ele><time>2026-04-28T08:01:48.852Z</time></trkpt><trkpt lat="39.29689570612669" lon="8.80088106776717"><ele>53.0</ele><time>2026-04-28T08:01:49.852Z</time></trkpt><trkpt lat="39.29688523169328" lon="8.801023815005717"><ele>53.0</ele><time>2026-04-28T08:01:50.851Z</time></trkpt><trkpt lat="39.29685279954559" lon="8.80116249448191"><ele>53.0</ele><time>2026-04-28T08:01:51.851Z</time></trkpt><trkpt lat="39.296833398161446" lon="8.801295545336748"><ele>53.0</ele><time>2026-04-28T08:01:52.851Z</time></trkpt><trkpt lat="39.2968125060811" lon="8.801438819091317"><ele>53.0</ele><time>2026-04-28T08:01:53.851Z</time></trkpt><trkpt lat="39.29679016184606" lon="8.801592051429067"><ele>53.0</ele><time>2026-04-28T08:01:54.851Z</time></trkpt><trkpt lat="39.29676514498389" lon="8.801767005273883"><ele>53.0</ele><time>2026-04-28T08:01:55.851Z</time></trkpt><trkpt lat="39.29674440328036" lon="8.801918885330894"><ele>53.0</ele><time>2026-04-28T08:01:56.851Z</time></trkpt><trkpt lat="39.29672683452734" lon="8.802043707097496"><ele>52.8</ele><time>2026-04-28T08:01:57.851Z</time></trkpt><trkpt lat="39.296711181126824" lon="8.80215106818999"><ele>52.599999999999994</ele><time>2026-04-28T08:01:58.851Z</time></trkpt><trkpt lat="39.29671055000873" lon="8.802261796178087"><ele>52.400000000000006</ele><time>2026-04-28T08:01:59.851Z</time></trkpt><trkpt lat="39.296678978858886" lon="8.802358356141124"><ele>52.2</ele><time>2026-04-28T08:02:00.851Z</time></trkpt><trkpt lat="39.296676328372456" lon="8.802443771756659"><ele>52.0</ele><time>2026-04-28T08:02:01.851Z</time></trkpt><trkpt lat="39.296615004679175" lon="8.802871082441635"><ele>52.0</ele><time>2026-04-28T08:02:02.851Z</time></trkpt><trkpt lat="39.2965727010267" lon="8.8030266838142"><ele>52.0</ele><time>2026-04-28T08:02:03.851Z</time></trkpt><trkpt lat="39.29656388315028" lon="8.803194993751035"><ele>52.0</ele><time>2026-04-28T08:02:04.851Z</time></trkpt><trkpt lat="39.29653736112081" lon="8.803355463424497"><ele>52.0</ele><time>2026-04-28T08:02:05.851Z</time></trkpt><trkpt lat="39.2965109350891" lon="8.80351216636041"><ele>52.25</ele><time>2026-04-28T08:02:06.851Z</time></trkpt><trkpt lat="39.29648346883185" lon="8.803674793834736"><ele>52.5</ele><time>2026-04-28T08:02:07.851Z</time></trkpt><trkpt lat="39.29645518987142" lon="8.803841430694044"><ele>52.75</ele><time>2026-04-28T08:02:08.851Z</time></trkpt><trkpt lat="39.2964222208893" lon="8.80400890243344"><ele>53.0</ele><time>2026-04-28T08:02:09.851Z</time></trkpt><trkpt lat="39.29639420809693" lon="8.80417468466631"><ele>52.5</ele><time>2026-04-28T08:02:10.851Z</time></trkpt><trkpt lat="39.296370123799036" lon="8.80433378045216"><ele>52.0</ele><time>2026-04-28T08:02:11.851Z</time></trkpt><trkpt lat="39.29635027056722" lon="8.804493268594225"><ele>51.5</ele><time>2026-04-28T08:02:12.851Z</time></trkpt><trkpt lat="39.29633452719712" lon="8.804649979519194"><ele>51.0</ele><time>2026-04-28T08:02:13.851Z</time></trkpt><trkpt lat="39.296293764483075" lon="8.804806148803321"><ele>51.0</ele><time>2026-04-28T08:02:14.851Z</time></trkpt><trkpt lat="39.296270470684235" lon="8.804966777067397"><ele>51.0</ele><time>2026-04-28T08:02:15.851Z</time></trkpt><trkpt lat="39.296261009140586" lon="8.805128079262015"><ele>51.0</ele><time>2026-04-28T08:02:16.851Z</time></trkpt><trkpt lat="39.29623865336965" lon="8.805271749482488"><ele>51.0</ele><time>2026-04-28T08:02:17.851Z</time></trkpt><trkpt lat="39.29619905855883" lon="8.805417434980592"><ele>50.75</ele><time>2026-04-28T08:02:18.851Z</time></trkpt><trkpt lat="39.29617418547121" lon="8.805572446569805"><ele>50.5</ele><time>2026-04-28T08:02:19.851Z</time></trkpt><trkpt lat="39.2961493746892" lon="8.805724938249805"><ele>50.25</ele><time>2026-04-28T08:02:20.851Z</time></trkpt><trkpt lat="39.29613965013143" lon="8.805883378706326"><ele>50.0</ele><time>2026-04-28T08:02:21.851Z</time></trkpt><trkpt lat="39.296116377275276" lon="8.806029727622905"><ele>50.0</ele><time>2026-04-28T08:02:22.851Z</time></trkpt><trkpt lat="39.29609588259298" lon="8.806163022347643"><ele>50.0</ele><time>2026-04-28T08:02:23.851Z</time></trkpt><trkpt lat="39.29607431440746" lon="8.806300755545372"><ele>50.0</ele><time>2026-04-28T08:02:24.851Z</time></trkpt><trkpt lat="39.29605681344" lon="8.806420585381886"><ele>50.0</ele><time>2026-04-28T08:02:25.851Z</time></trkpt><trkpt lat="39.296042616917916" lon="8.806529168684358"><ele>50.0</ele><time>2026-04-28T08:02:26.851Z</time></trkpt><trkpt lat="39.296075384789084" lon="8.806619813357282"><ele>50.0</ele><time>2026-04-28T08:02:27.851Z</time></trkpt><trkpt lat="39.296087634638646" lon="8.806726764411307"><ele>50.0</ele><time>2026-04-28T08:02:28.851Z</time></trkpt><trkpt lat="39.29609369367697" lon="8.806816725415649"><ele>50.0</ele><time>2026-04-28T08:02:29.851Z</time></trkpt><trkpt lat="39.29599630919552" lon="8.806946013214814"><ele>50.0</ele><time>2026-04-28T08:02:31.851Z</time></trkpt><trkpt lat="39.29595700303551" lon="8.80705150113719"><ele>50.0</ele><time>2026-04-28T08:02:32.851Z</time></trkpt><trkpt lat="39.295929482095524" lon="8.807183132387863"><ele>50.0</ele><time>2026-04-28T08:02:33.851Z</time></trkpt><trkpt lat="39.29589930309872" lon="8.807325294546425"><ele>50.0</ele><time>2026-04-28T08:02:34.851Z</time></trkpt><trkpt lat="39.29587652165529" lon="8.807470594095333"><ele>50.0</ele><time>2026-04-28T08:02:35.851Z</time></trkpt><trkpt lat="39.295857982932745" lon="8.80762106930355"><ele>50.0</ele><time>2026-04-28T08:02:36.851Z</time></trkpt><trkpt lat="39.2958368687211" lon="8.807761208161196"><ele>50.2</ele><time>2026-04-28T08:02:37.851Z</time></trkpt><trkpt lat="39.29582028916254" lon="8.80788731950363"><ele>50.4</ele><time>2026-04-28T08:02:38.85Z</time></trkpt><trkpt lat="39.29581105725362" lon="8.808010769637457"><ele>50.599999999999994</ele><time>2026-04-28T08:02:39.848Z</time></trkpt><trkpt lat="39.295804156594436" lon="8.808119960892057"><ele>50.8</ele><time>2026-04-28T08:02:40.846Z</time></trkpt><trkpt lat="39.29582924056338" lon="8.808241605950897"><ele>51.0</ele><time>2026-04-28T08:02:42.843Z</time></trkpt><trkpt lat="39.295920475757065" lon="8.808275366052497"><ele>51.0</ele><time>2026-04-28T08:02:44.841Z</time></trkpt><trkpt lat="39.29598557251812" lon="8.808281828343878"><ele>51.0</ele><time>2026-04-28T08:02:45.839Z</time></trkpt><trkpt lat="39.29607687011341" lon="8.808299321286752"><ele>51.0</ele><time>2026-04-28T08:02:46.838Z</time></trkpt><trkpt lat="39.29618100481641" lon="8.808314509659697"><ele>51.0</ele><time>2026-04-28T08:02:47.837Z</time></trkpt><trkpt lat="39.296292435661535" lon="8.808294740985975"><ele>51.0</ele><time>2026-04-28T08:02:48.836Z</time></trkpt><trkpt lat="39.296392966097166" lon="8.80829121720678"><ele>51.166666666666664</ele><time>2026-04-28T08:02:49.835Z</time></trkpt><trkpt lat="39.2964679955054" lon="8.808311537686187"><ele>51.33333333333333</ele><time>2026-04-28T08:02:50.834Z</time></trkpt><trkpt lat="39.29652091434734" lon="8.808361886449164"><ele>51.5</ele><time>2026-04-28T08:02:51.834Z</time></trkpt><trkpt lat="39.29657643672829" lon="8.8084441029536"><ele>51.666666666666664</ele><time>2026-04-28T08:02:52.833Z</time></trkpt><trkpt lat="39.29663963023742" lon="8.808526389818661"><ele>51.83333333333333</ele><time>2026-04-28T08:02:53.832Z</time></trkpt><trkpt lat="39.2967095272066" lon="8.80862505173632"><ele>52.0</ele><time>2026-04-28T08:02:54.831Z</time></trkpt><trkpt lat="39.2967786162342" lon="8.808746248028156"><ele>52.0</ele><time>2026-04-28T08:02:55.831Z</time></trkpt><trkpt lat="39.296849713208246" lon="8.80889435074919"><ele>52.0</ele><time>2026-04-28T08:02:56.83Z</time></trkpt><trkpt lat="39.29690806477625" lon="8.809039933488549"><ele>52.0</ele><time>2026-04-28T08:02:57.83Z</time></trkpt><trkpt lat="39.296950495227904" lon="8.809172508926856"><ele>52.0</ele><time>2026-04-28T08:02:58.829Z</time></trkpt><trkpt lat="39.29698817816031" lon="8.809258201988055"><ele>52.0</ele><time>2026-04-28T08:02:59.829Z</time></trkpt><trkpt lat="39.29699346233327" lon="8.809352137460936"><ele>52.0</ele><time>2026-04-28T08:03:01.828Z</time></trkpt><trkpt lat="39.2970881065692" lon="8.809347161045723"><ele>52.0</ele><time>2026-04-28T08:03:02.827Z</time></trkpt><trkpt lat="39.297181221684355" lon="8.80937429683176"><ele>52.0</ele><time>2026-04-28T08:03:04.827Z</time></trkpt><trkpt lat="39.2972582587782" lon="8.809403469551286"><ele>52.0</ele><time>2026-04-28T08:03:06.826Z</time></trkpt><trkpt lat="39.29733343851292" lon="8.809443573029712"><ele>52.0</ele><time>2026-04-28T08:03:09.825Z</time></trkpt><trkpt lat="39.29699664429659" lon="8.809621081677637"><ele>51.0</ele><time>2026-04-28T08:03:10.825Z</time></trkpt><trkpt lat="39.29739031850135" lon="8.80964407738815"><ele>50.0</ele><time>2026-04-28T08:03:14.824Z</time></trkpt><trkpt lat="39.29745071920261" lon="8.809670313062728"><ele>50.00000000000001</ele><time>2026-04-28T08:03:16.824Z</time></trkpt><trkpt lat="39.297574201245475" lon="8.809675509284896"><ele>50.0</ele><time>2026-04-28T08:03:18.823Z</time></trkpt><trkpt lat="39.297628990226826" lon="8.809716711890346"><ele>50.0</ele><time>2026-04-28T08:03:19.823Z</time></trkpt><trkpt lat="39.297698380087205" lon="8.80981823408376"><ele>50.0</ele><time>2026-04-28T08:03:21.823Z</time></trkpt><trkpt lat="39.297736712208255" lon="8.809898797591268"><ele>50.00000000000001</ele><time>2026-04-28T08:03:24.823Z</time></trkpt><trkpt lat="39.29777998901399" lon="8.809963275681255"><ele>50.0</ele><time>2026-04-28T08:03:28.822Z</time></trkpt><trkpt lat="39.297837283746446" lon="8.810062291308832"><ele>50.0</ele><time>2026-04-28T08:03:30.822Z</time></trkpt><trkpt lat="39.29789163927156" lon="8.810111128188737"><ele>50.0</ele><time>2026-04-28T08:03:31.822Z</time></trkpt><trkpt lat="39.297993929070195" lon="8.810212458718263"><ele>50.0</ele><time>2026-04-28T08:03:33.822Z</time></trkpt><trkpt lat="39.298055544530904" lon="8.81028469488593"><ele>50.0</ele><time>2026-04-28T08:03:35.822Z</time></trkpt><trkpt lat="39.29817312016794" lon="8.810235535246186"><ele>50.0</ele><time>2026-04-28T08:03:37.822Z</time></trkpt><trkpt lat="39.29824164306915" lon="8.810210086357493"><ele>50.333333333333336</ele><time>2026-04-28T08:03:38.821Z</time></trkpt><trkpt lat="39.29830951742489" lon="8.810190428156943"><ele>50.66666666666667</ele><time>2026-04-28T08:03:39.821Z</time></trkpt><trkpt lat="39.29838810073247" lon="8.810172869656046"><ele>51.0</ele><time>2026-04-28T08:03:40.821Z</time></trkpt><trkpt lat="39.298482339152535" lon="8.81014643308166"><ele>51.33333333333333</ele><time>2026-04-28T08:03:41.82Z</time></trkpt><trkpt lat="39.29856855335285" lon="8.810137813986984"><ele>51.666666666666664</ele><time>2026-04-28T08:03:42.821Z</time></trkpt><trkpt lat="39.29864118385813" lon="8.810140266416331"><ele>52.0</ele><time>2026-04-28T08:03:43.821Z</time></trkpt><trkpt lat="39.29871039176466" lon="8.810159320255869"><ele>52.400000000000006</ele><time>2026-04-28T08:03:46.821Z</time></trkpt><trkpt lat="39.29867610592561" lon="8.810348499409141"><ele>52.800000000000004</ele><time>2026-04-28T08:03:51.82Z</time></trkpt><trkpt lat="39.29865288459795" lon="8.810439531858936"><ele>53.2</ele><time>2026-04-28T08:03:52.82Z</time></trkpt><trkpt lat="39.29863246518799" lon="8.810532782151519"><ele>53.6</ele><time>2026-04-28T08:03:53.82Z</time></trkpt><trkpt lat="39.29861215748223" lon="8.810636218329675"><ele>54.0</ele><time>2026-04-28T08:03:54.82Z</time></trkpt><trkpt lat="39.29858892450402" lon="8.810740780241236"><ele>54.0</ele><time>2026-04-28T08:03:55.82Z</time></trkpt><trkpt lat="39.2985702793229" lon="8.810845572613388"><ele>54.0</ele><time>2026-04-28T08:03:56.82Z</time></trkpt><trkpt lat="39.29854726874528" lon="8.81094507122855"><ele>54.0</ele><time>2026-04-28T08:03:57.82Z</time></trkpt><trkpt lat="39.298537639150844" lon="8.811056488898775"><ele>54.0</ele><time>2026-04-28T08:03:58.82Z</time></trkpt><trkpt lat="39.29851581706167" lon="8.811167357686589"><ele>54.0</ele><time>2026-04-28T08:03:59.82Z</time></trkpt><trkpt lat="39.29849743109685" lon="8.811289364562294"><ele>54.0</ele><time>2026-04-28T08:04:00.82Z</time></trkpt><trkpt lat="39.29847938700715" lon="8.811401808335317"><ele>54.0</ele><time>2026-04-28T08:04:01.82Z</time></trkpt><trkpt lat="39.298463555091494" lon="8.81151431741766"><ele>54.00000000000001</ele><time>2026-04-28T08:04:02.82Z</time></trkpt><trkpt lat="39.298455245542755" lon="8.811635952035482"><ele>54.00000000000001</ele><time>2026-04-28T08:04:03.82Z</time></trkpt><trkpt lat="39.298450882993215" lon="8.811755149581552"><ele>54.0</ele><time>2026-04-28T08:04:04.82Z</time></trkpt><trkpt lat="39.29846154448705" lon="8.81188159457753"><ele>54.0</ele><time>2026-04-28T08:04:05.82Z</time></trkpt><trkpt lat="39.298480678256055" lon="8.812007278172677"><ele>54.166666666666664</ele><time>2026-04-28T08:04:06.82Z</time></trkpt><trkpt lat="39.298505997970956" lon="8.81212343078198"><ele>54.33333333333333</ele><time>2026-04-28T08:04:07.82Z</time></trkpt><trkpt lat="39.29854528338368" lon="8.812228928185503"><ele>54.5</ele><time>2026-04-28T08:04:08.82Z</time></trkpt><trkpt lat="39.29857882889706" lon="8.812314901338462"><ele>54.666666666666664</ele><time>2026-04-28T08:04:09.82Z</time></trkpt><trkpt lat="39.29862452512586" lon="8.812393278968916"><ele>54.83333333333333</ele><time>2026-04-28T08:04:10.82Z</time></trkpt><trkpt lat="39.29865028726193" lon="8.812496728034414"><ele>55.0</ele><time>2026-04-28T08:04:11.82Z</time></trkpt><trkpt lat="39.2986926582465" lon="8.812593774975872"><ele>55.2</ele><time>2026-04-28T08:04:12.82Z</time></trkpt><trkpt lat="39.29875363068686" lon="8.812690287715606"><ele>55.4</ele><time>2026-04-28T08:04:13.82Z</time></trkpt><trkpt lat="39.29879715734474" lon="8.812794234997883"><ele>55.599999999999994</ele><time>2026-04-28T08:04:14.82Z</time></trkpt><trkpt lat="39.298846576596645" lon="8.812907861794416"><ele>55.8</ele><time>2026-04-28T08:04:15.82Z</time></trkpt><trkpt lat="39.29889551901206" lon="8.813020916584437"><ele>56.0</ele><time>2026-04-28T08:04:16.82Z</time></trkpt><trkpt lat="39.298943171257775" lon="8.813137322383813"><ele>56.0</ele><time>2026-04-28T08:04:17.82Z</time></trkpt><trkpt lat="39.298993139444995" lon="8.813257841284745"><ele>55.99999999999999</ele><time>2026-04-28T08:04:18.82Z</time></trkpt><trkpt lat="39.29904241292282" lon="8.81337723849017"><ele>55.99999999999999</ele><time>2026-04-28T08:04:19.82Z</time></trkpt><trkpt lat="39.29909664037264" lon="8.813496145962295"><ele>56.0</ele><time>2026-04-28T08:04:20.82Z</time></trkpt><trkpt lat="39.29914816133975" lon="8.813620677158267"><ele>56.0</ele><time>2026-04-28T08:04:21.82Z</time></trkpt><trkpt lat="39.29920230610604" lon="8.813746306104806"><ele>55.5</ele><time>2026-04-28T08:04:22.82Z</time></trkpt><trkpt lat="39.29926572016361" lon="8.813874791478776"><ele>55.0</ele><time>2026-04-28T08:04:23.82Z</time></trkpt><trkpt lat="39.29932362398294" lon="8.814008936204576"><ele>54.5</ele><time>2026-04-28T08:04:24.82Z</time></trkpt><trkpt lat="39.29938128322753" lon="8.814137318364548"><ele>54.0</ele><time>2026-04-28T08:04:25.82Z</time></trkpt><trkpt lat="39.29942926036779" lon="8.814251850250308"><ele>53.6</ele><time>2026-04-28T08:04:26.82Z</time></trkpt><trkpt lat="39.2994796458312" lon="8.814357142188582"><ele>53.2</ele><time>2026-04-28T08:04:27.82Z</time></trkpt><trkpt lat="39.29953013339385" lon="8.814469888645215"><ele>52.800000000000004</ele><time>2026-04-28T08:04:28.82Z</time></trkpt><trkpt lat="39.29956546771812" lon="8.814584533052685"><ele>52.400000000000006</ele><time>2026-04-28T08:04:29.82Z</time></trkpt><trkpt lat="39.2995931108757" lon="8.814689890429149"><ele>52.0</ele><time>2026-04-28T08:04:30.82Z</time></trkpt><trkpt lat="39.29962194245606" lon="8.81479795118625"><ele>52.0</ele><time>2026-04-28T08:04:31.82Z</time></trkpt><trkpt lat="39.29964935302418" lon="8.814917230829765"><ele>52.0</ele><time>2026-04-28T08:04:32.82Z</time></trkpt><trkpt lat="39.29967948223349" lon="8.815053735045648"><ele>52.0</ele><time>2026-04-28T08:04:33.82Z</time></trkpt><trkpt lat="39.299693814904785" lon="8.815185740674083"><ele>52.0</ele><time>2026-04-28T08:04:34.82Z</time></trkpt><trkpt lat="39.299671163051265" lon="8.815327411184823"><ele>52.0</ele><time>2026-04-28T08:04:35.82Z</time></trkpt><trkpt lat="39.299663863145746" lon="8.81546968114948"><ele>51.75</ele><time>2026-04-28T08:04:36.82Z</time></trkpt><trkpt lat="39.29965599729142" lon="8.815617066085617"><ele>51.5</ele><time>2026-04-28T08:04:37.82Z</time></trkpt><trkpt lat="39.299662351417304" lon="8.815775786115937"><ele>51.25</ele><time>2026-04-28T08:04:38.82Z</time></trkpt><trkpt lat="39.29963857789779" lon="8.8159247189605"><ele>51.0</ele><time>2026-04-28T08:04:39.82Z</time></trkpt><trkpt lat="39.299631577281" lon="8.816096849650247"><ele>50.75</ele><time>2026-04-28T08:04:40.82Z</time></trkpt><trkpt lat="39.29962674925214" lon="8.816271593771958"><ele>50.5</ele><time>2026-04-28T08:04:41.82Z</time></trkpt><trkpt lat="39.29961991582521" lon="8.816433550828695"><ele>50.25</ele><time>2026-04-28T08:04:42.82Z</time></trkpt><trkpt lat="39.29960812186681" lon="8.816601815110388"><ele>50.0</ele><time>2026-04-28T08:04:43.82Z</time></trkpt><trkpt lat="39.29960181732314" lon="8.816773594056835"><ele>50.0</ele><time>2026-04-28T08:04:44.82Z</time></trkpt><trkpt lat="39.29959155099859" lon="8.816940230886773"><ele>50.0</ele><time>2026-04-28T08:04:45.82Z</time></trkpt><trkpt lat="39.29958233950875" lon="8.817104714090613"><ele>50.0</ele><time>2026-04-28T08:04:46.82Z</time></trkpt><trkpt lat="39.29957192244344" lon="8.81727493720137"><ele>50.0</ele><time>2026-04-28T08:04:47.82Z</time></trkpt><trkpt lat="39.29956009259765" lon="8.817447916603735"><ele>50.0</ele><time>2026-04-28T08:04:48.82Z</time></trkpt><trkpt lat="39.29954701173641" lon="8.817617593667723"><ele>50.0</ele><time>2026-04-28T08:04:49.82Z</time></trkpt><trkpt lat="39.29953688812562" lon="8.817797830995596"><ele>50.0</ele><time>2026-04-28T08:04:50.82Z</time></trkpt><trkpt lat="39.29952617397226" lon="8.817977907024892"><ele>50.0</ele><time>2026-04-28T08:04:51.82Z</time></trkpt><trkpt lat="39.2995118144587" lon="8.818169781307917"><ele>50.0</ele><time>2026-04-28T08:04:52.82Z</time></trkpt><trkpt lat="39.29949193226708" lon="8.818364432955692"><ele>50.0</ele><time>2026-04-28T08:04:53.82Z</time></trkpt><trkpt lat="39.299467013645724" lon="8.818567436571122"><ele>50.0</ele><time>2026-04-28T08:04:54.82Z</time></trkpt><trkpt lat="39.29944697825747" lon="8.818778249239243"><ele>50.0</ele><time>2026-04-28T08:04:55.82Z</time></trkpt><trkpt lat="39.29940645098874" lon="8.818989745568379"><ele>50.0</ele><time>2026-04-28T08:04:56.82Z</time></trkpt><trkpt lat="39.29937990878288" lon="8.819210087800462"><ele>50.0</ele><time>2026-04-28T08:04:57.82Z</time></trkpt><trkpt lat="39.299350396881316" lon="8.819436059306684"><ele>50.66666666666667</ele><time>2026-04-28T08:04:58.819Z</time></trkpt><trkpt lat="39.2993223589109" lon="8.819663263499882"><ele>51.33333333333333</ele><time>2026-04-28T08:04:59.819Z</time></trkpt><trkpt lat="39.29930562503654" lon="8.819897046610196"><ele>52.0</ele><time>2026-04-28T08:05:00.819Z</time></trkpt><trkpt lat="39.29927141927843" lon="8.820128063866216"><ele>52.0</ele><time>2026-04-28T08:05:01.819Z</time></trkpt><trkpt lat="39.29923588449957" lon="8.820358473902463"><ele>52.0</ele><time>2026-04-28T08:05:02.819Z</time></trkpt><trkpt lat="39.299199658664456" lon="8.820588888505325"><ele>52.0</ele><time>2026-04-28T08:05:03.819Z</time></trkpt><trkpt lat="39.299168344295815" lon="8.820820016813157"><ele>51.666666666666664</ele><time>2026-04-28T08:05:04.819Z</time></trkpt><trkpt lat="39.299134528499934" lon="8.821047964131207"><ele>51.33333333333333</ele><time>2026-04-28T08:05:05.819Z</time></trkpt><trkpt lat="39.29910511144533" lon="8.82127873675772"><ele>51.0</ele><time>2026-04-28T08:05:06.819Z</time></trkpt><trkpt lat="39.29907788412682" lon="8.821514272361464"><ele>51.0</ele><time>2026-04-28T08:05:07.819Z</time></trkpt><trkpt lat="39.299049306207564" lon="8.82174792721645"><ele>51.0</ele><time>2026-04-28T08:05:08.819Z</time></trkpt><trkpt lat="39.29902164811891" lon="8.821977809515591"><ele>51.0</ele><time>2026-04-28T08:05:09.819Z</time></trkpt><trkpt lat="39.29899310738296" lon="8.822210100671292"><ele>52.0</ele><time>2026-04-28T08:05:10.819Z</time></trkpt><trkpt lat="39.29896511572262" lon="8.822447021920214"><ele>53.0</ele><time>2026-04-28T08:05:11.819Z</time></trkpt><trkpt lat="39.29893763416568" lon="8.822685070720924"><ele>54.0</ele><time>2026-04-28T08:05:12.819Z</time></trkpt><trkpt lat="39.29890886274525" lon="8.822922598091333"><ele>54.0</ele><time>2026-04-28T08:05:13.819Z</time></trkpt><trkpt lat="39.298875332407384" lon="8.823159483906503"><ele>54.0</ele><time>2026-04-28T08:05:14.819Z</time></trkpt><trkpt lat="39.29884442804361" lon="8.823395386078953"><ele>54.0</ele><time>2026-04-28T08:05:15.819Z</time></trkpt><trkpt lat="39.29881324283237" lon="8.823629346464243"><ele>54.33333333333333</ele><time>2026-04-28T08:05:16.819Z</time></trkpt><trkpt lat="39.29878518434665" lon="8.823864933148283"><ele>54.666666666666664</ele><time>2026-04-28T08:05:17.819Z</time></trkpt><trkpt lat="39.29875718383082" lon="8.824098930236698"><ele>55.0</ele><time>2026-04-28T08:05:18.819Z</time></trkpt><trkpt lat="39.29873038506008" lon="8.824339960619652"><ele>55.0</ele><time>2026-04-28T08:05:19.819Z</time></trkpt><trkpt lat="39.2986994262003" lon="8.824573404251073"><ele>55.0</ele><time>2026-04-28T08:05:20.819Z</time></trkpt><trkpt lat="39.298669244421376" lon="8.824808982111"><ele>55.0</ele><time>2026-04-28T08:05:21.819Z</time></trkpt><trkpt lat="39.29863624730446" lon="8.825043654408418"><ele>55.33333333333333</ele><time>2026-04-28T08:05:22.819Z</time></trkpt><trkpt lat="39.2986039976573" lon="8.825278076248217"><ele>55.66666666666667</ele><time>2026-04-28T08:05:23.819Z</time></trkpt><trkpt lat="39.298571690344716" lon="8.82551485309958"><ele>56.0</ele><time>2026-04-28T08:05:24.819Z</time></trkpt><trkpt lat="39.29853293931763" lon="8.825748630987075"><ele>55.333333333333336</ele><time>2026-04-28T08:05:25.819Z</time></trkpt><trkpt lat="39.298490963551636" lon="8.825985144708222"><ele>54.66666666666667</ele><time>2026-04-28T08:05:26.819Z</time></trkpt><trkpt lat="39.29843787983798" lon="8.82620986755066"><ele>54.0</ele><time>2026-04-28T08:05:27.819Z</time></trkpt><trkpt lat="39.29838685561571" lon="8.826439254245383"><ele>54.0</ele><time>2026-04-28T08:05:28.819Z</time></trkpt><trkpt lat="39.29833701648066" lon="8.826665616539364"><ele>54.0</ele><time>2026-04-28T08:05:29.819Z</time></trkpt><trkpt lat="39.298296949115525" lon="8.826892404484228"><ele>54.0</ele><time>2026-04-28T08:05:30.819Z</time></trkpt><trkpt lat="39.29826474275652" lon="8.827125855348305"><ele>54.0</ele><time>2026-04-28T08:05:31.819Z</time></trkpt><trkpt lat="39.29824333720212" lon="8.827366199837611"><ele>54.0</ele><time>2026-04-28T08:05:32.819Z</time></trkpt><trkpt lat="39.298231039282456" lon="8.827605835538302"><ele>54.0</ele><time>2026-04-28T08:05:33.819Z</time></trkpt><trkpt lat="39.29822799405296" lon="8.827858338942029"><ele>54.0</ele><time>2026-04-28T08:05:34.819Z</time></trkpt><trkpt lat="39.29822923553735" lon="8.828112012807749"><ele>54.0</ele><time>2026-04-28T08:05:35.819Z</time></trkpt><trkpt lat="39.29823386229337" lon="8.828368804525383"><ele>54.0</ele><time>2026-04-28T08:05:36.819Z</time></trkpt><trkpt lat="39.29823979376729" lon="8.828626782616224"><ele>53.33333333333333</ele><time>2026-04-28T08:05:37.819Z</time></trkpt><trkpt lat="39.2982273690941" lon="8.828879118789615"><ele>52.666666666666664</ele><time>2026-04-28T08:05:38.819Z</time></trkpt><trkpt lat="39.29823296691182" lon="8.829138465880764"><ele>52.0</ele><time>2026-04-28T08:05:39.819Z</time></trkpt><trkpt lat="39.29823742975586" lon="8.829394007522728"><ele>52.0</ele><time>2026-04-28T08:05:40.819Z</time></trkpt><trkpt lat="39.29824033289191" lon="8.829648884447629"><ele>52.0</ele><time>2026-04-28T08:05:41.819Z</time></trkpt><trkpt lat="39.29824255273781" lon="8.82990751934427"><ele>52.0</ele><time>2026-04-28T08:05:42.819Z</time></trkpt><trkpt lat="39.29824418241195" lon="8.830165287252742"><ele>52.33333333333333</ele><time>2026-04-28T08:05:43.819Z</time></trkpt><trkpt lat="39.29824886398772" lon="8.830424402615506"><ele>52.66666666666667</ele><time>2026-04-28T08:05:44.818Z</time></trkpt><trkpt lat="39.2982270972547" lon="8.830674983971823"><ele>53.0</ele><time>2026-04-28T08:05:45.819Z</time></trkpt><trkpt lat="39.29823096695899" lon="8.830935175550318"><ele>53.333333333333336</ele><time>2026-04-28T08:05:46.819Z</time></trkpt><trkpt lat="39.298233277298046" lon="8.831195766515206"><ele>53.66666666666667</ele><time>2026-04-28T08:05:47.819Z</time></trkpt><trkpt lat="39.29823686880175" lon="8.831452177385781"><ele>54.0</ele><time>2026-04-28T08:05:48.818Z</time></trkpt><trkpt lat="39.2982495118901" lon="8.83170787422838"><ele>54.66666666666667</ele><time>2026-04-28T08:05:49.818Z</time></trkpt><trkpt lat="39.29826743486849" lon="8.831961470687835"><ele>55.333333333333336</ele><time>2026-04-28T08:05:50.818Z</time></trkpt><trkpt lat="39.29828957641494" lon="8.832211410816516"><ele>56.0</ele><time>2026-04-28T08:05:51.818Z</time></trkpt><trkpt lat="39.29831767078532" lon="8.832457033835382"><ele>57.333333333333336</ele><time>2026-04-28T08:05:52.818Z</time></trkpt><trkpt lat="39.298356119237084" lon="8.832708159594054"><ele>58.66666666666667</ele><time>2026-04-28T08:05:53.818Z</time></trkpt><trkpt lat="39.2984072681602" lon="8.83296200070109"><ele>60.0</ele><time>2026-04-28T08:05:54.818Z</time></trkpt><trkpt lat="39.29846734969692" lon="8.833215941803283"><ele>60.0</ele><time>2026-04-28T08:05:55.818Z</time></trkpt><trkpt lat="39.298532578028464" lon="8.833472510597225"><ele>60.0</ele><time>2026-04-28T08:05:56.818Z</time></trkpt><trkpt lat="39.29859690226989" lon="8.833726500192348"><ele>60.0</ele><time>2026-04-28T08:05:57.818Z</time></trkpt><trkpt lat="39.29866215626655" lon="8.833981990837243"><ele>60.0</ele><time>2026-04-28T08:05:58.818Z</time></trkpt><trkpt lat="39.298732121186156" lon="8.83424248587821"><ele>60.0</ele><time>2026-04-28T08:05:59.818Z</time></trkpt><trkpt lat="39.298800758436556" lon="8.834508182067678"><ele>60.0</ele><time>2026-04-28T08:06:00.818Z</time></trkpt><trkpt lat="39.29886660677621" lon="8.834773828556235"><ele>58.66666666666667</ele><time>2026-04-28T08:06:01.818Z</time></trkpt><trkpt lat="39.2989335120269" lon="8.835042204804585"><ele>57.333333333333336</ele><time>2026-04-28T08:06:02.818Z</time></trkpt><trkpt lat="39.299000056562065" lon="8.835315247401788"><ele>56.0</ele><time>2026-04-28T08:06:03.818Z</time></trkpt><trkpt lat="39.299066408494326" lon="8.835586799487748"><ele>55.66666666666667</ele><time>2026-04-28T08:06:04.818Z</time></trkpt><trkpt lat="39.29913330882003" lon="8.835859169808549"><ele>55.33333333333333</ele><time>2026-04-28T08:06:05.818Z</time></trkpt><trkpt lat="39.29920295770988" lon="8.836135646725337"><ele>55.0</ele><time>2026-04-28T08:06:06.818Z</time></trkpt><trkpt lat="39.29927832863302" lon="8.836416006225752"><ele>55.0</ele><time>2026-04-28T08:06:07.818Z</time></trkpt><trkpt lat="39.299350035123446" lon="8.836695735243921"><ele>55.0</ele><time>2026-04-28T08:06:08.818Z</time></trkpt><trkpt lat="39.299422034112276" lon="8.836974621693134"><ele>55.0</ele><time>2026-04-28T08:06:09.818Z</time></trkpt><trkpt lat="39.29949460884106" lon="8.83725339855539"><ele>55.0</ele><time>2026-04-28T08:06:10.818Z</time></trkpt><trkpt lat="39.29956566361571" lon="8.837534097464621"><ele>54.0</ele><time>2026-04-28T08:06:11.818Z</time></trkpt><trkpt lat="39.29963768960803" lon="8.837815192024046"><ele>53.0</ele><time>2026-04-28T08:06:12.818Z</time></trkpt><trkpt lat="39.29970850015235" lon="8.838097542282329"><ele>54.5</ele><time>2026-04-28T08:06:13.818Z</time></trkpt><trkpt lat="39.299779640907595" lon="8.838379379528462"><ele>56.0</ele><time>2026-04-28T08:06:14.818Z</time></trkpt><trkpt lat="39.299850706528396" lon="8.8386605034595"><ele>56.0</ele><time>2026-04-28T08:06:15.818Z</time></trkpt><trkpt lat="39.299920365988406" lon="8.83894045465368"><ele>56.0</ele><time>2026-04-28T08:06:16.818Z</time></trkpt><trkpt lat="39.29999162203764" lon="8.83921699244302"><ele>56.5</ele><time>2026-04-28T08:06:17.818Z</time></trkpt><trkpt lat="39.300062006832995" lon="8.839497437731467"><ele>57.0</ele><time>2026-04-28T08:06:18.818Z</time></trkpt><trkpt lat="39.3001328682392" lon="8.839775938934782"><ele>57.0</ele><time>2026-04-28T08:06:19.818Z</time></trkpt><trkpt lat="39.30020340898415" lon="8.840055982107321"><ele>57.0</ele><time>2026-04-28T08:06:20.818Z</time></trkpt><trkpt lat="39.300275749760246" lon="8.840333672800504"><ele>57.66666666666667</ele><time>2026-04-28T08:06:21.818Z</time></trkpt><trkpt lat="39.300342781139726" lon="8.840606946854827"><ele>58.333333333333336</ele><time>2026-04-28T08:06:22.818Z</time></trkpt><trkpt lat="39.30041152337715" lon="8.840880281072662"><ele>59.0</ele><time>2026-04-28T08:06:23.818Z</time></trkpt><trkpt lat="39.30047964275718" lon="8.841152169922724"><ele>59.333333333333336</ele><time>2026-04-28T08:06:24.818Z</time></trkpt><trkpt lat="39.300537988835316" lon="8.841406008257525"><ele>59.66666666666667</ele><time>2026-04-28T08:06:25.818Z</time></trkpt><trkpt lat="39.30058379295492" lon="8.84163424673024"><ele>60.0</ele><time>2026-04-28T08:06:26.818Z</time></trkpt><trkpt lat="39.3006367173028" lon="8.841850714318547"><ele>61.33333333333333</ele><time>2026-04-28T08:06:27.818Z</time></trkpt><trkpt lat="39.3006764002844" lon="8.84205057457354"><ele>62.666666666666664</ele><time>2026-04-28T08:06:28.818Z</time></trkpt><trkpt lat="39.30070998088205" lon="8.842251499702694"><ele>64.0</ele><time>2026-04-28T08:06:29.818Z</time></trkpt><trkpt lat="39.30072927134828" lon="8.842458810854648"><ele>63.666666666666664</ele><time>2026-04-28T08:06:30.818Z</time></trkpt><trkpt lat="39.30072939727932" lon="8.842659738669312"><ele>63.33333333333333</ele><time>2026-04-28T08:06:31.818Z</time></trkpt><trkpt lat="39.3007213679567" lon="8.842863267884258"><ele>63.0</ele><time>2026-04-28T08:06:32.818Z</time></trkpt><trkpt lat="39.30069440499284" lon="8.843062981258878"><ele>63.0</ele><time>2026-04-28T08:06:33.818Z</time></trkpt><trkpt lat="39.30065034442584" lon="8.843266156577572"><ele>63.0</ele><time>2026-04-28T08:06:34.818Z</time></trkpt><trkpt lat="39.30060146128378" lon="8.843481890310112"><ele>63.0</ele><time>2026-04-28T08:06:35.818Z</time></trkpt><trkpt lat="39.30054471434709" lon="8.84371190533505"><ele>62.66666666666667</ele><time>2026-04-28T08:06:36.818Z</time></trkpt><trkpt lat="39.300480299791715" lon="8.84394465887951"><ele>62.333333333333336</ele><time>2026-04-28T08:06:37.818Z</time></trkpt><trkpt lat="39.3004188239783" lon="8.844192053769225"><ele>62.0</ele><time>2026-04-28T08:06:38.818Z</time></trkpt><trkpt lat="39.3003542481746" lon="8.844413165098223"><ele>61.66666666666667</ele><time>2026-04-28T08:06:39.818Z</time></trkpt><trkpt lat="39.30029315041021" lon="8.844646352838922"><ele>61.33333333333333</ele><time>2026-04-28T08:06:40.818Z</time></trkpt><trkpt lat="39.3002330029719" lon="8.844886396536822"><ele>61.0</ele><time>2026-04-28T08:06:41.818Z</time></trkpt><trkpt lat="39.30017325037638" lon="8.84513031528982"><ele>60.666666666666664</ele><time>2026-04-28T08:06:42.818Z</time></trkpt><trkpt lat="39.30011905995684" lon="8.845377425849316"><ele>60.33333333333333</ele><time>2026-04-28T08:06:43.818Z</time></trkpt><trkpt lat="39.3000631254283" lon="8.845615042916933"><ele>60.0</ele><time>2026-04-28T08:06:44.818Z</time></trkpt><trkpt lat="39.30000371767633" lon="8.845859123290682"><ele>59.66666666666667</ele><time>2026-04-28T08:06:45.818Z</time></trkpt><trkpt lat="39.2999427367865" lon="8.846103322261383"><ele>59.333333333333336</ele><time>2026-04-28T08:06:46.818Z</time></trkpt><trkpt lat="39.29987816058459" lon="8.846354886090461"><ele>59.0</ele><time>2026-04-28T08:06:47.818Z</time></trkpt><trkpt lat="39.2998165801763" lon="8.846597225857732"><ele>59.333333333333336</ele><time>2026-04-28T08:06:48.818Z</time></trkpt><trkpt lat="39.299756435199214" lon="8.846840679462815"><ele>59.66666666666667</ele><time>2026-04-28T08:06:49.818Z</time></trkpt><trkpt lat="39.29969410412746" lon="8.847082175061852"><ele>60.0</ele><time>2026-04-28T08:06:50.818Z</time></trkpt><trkpt lat="39.29963338023411" lon="8.8473230958752"><ele>60.0</ele><time>2026-04-28T08:06:51.818Z</time></trkpt><trkpt lat="39.299573780765634" lon="8.847559370944305"><ele>60.0</ele><time>2026-04-28T08:06:52.818Z</time></trkpt><trkpt lat="39.29951049743117" lon="8.847793510027198"><ele>60.0</ele><time>2026-04-28T08:06:53.818Z</time></trkpt><trkpt lat="39.299448143583916" lon="8.84803173504844"><ele>59.33333333333333</ele><time>2026-04-28T08:06:54.818Z</time></trkpt><trkpt lat="39.29939012454086" lon="8.848265541158641"><ele>58.666666666666664</ele><time>2026-04-28T08:06:55.818Z</time></trkpt><trkpt lat="39.29933425271763" lon="8.848497818781139"><ele>58.0</ele><time>2026-04-28T08:06:56.818Z</time></trkpt><trkpt lat="39.29927760962867" lon="8.848734030197692"><ele>58.0</ele><time>2026-04-28T08:06:57.818Z</time></trkpt><trkpt lat="39.29921565007012" lon="8.848969466058447"><ele>58.0</ele><time>2026-04-28T08:06:58.818Z</time></trkpt><trkpt lat="39.29915341857817" lon="8.849206051267533"><ele>58.0</ele><time>2026-04-28T08:06:59.818Z</time></trkpt><trkpt lat="39.29909372824256" lon="8.849447304058824"><ele>58.0</ele><time>2026-04-28T08:07:00.818Z</time></trkpt><trkpt lat="39.299033833277704" lon="8.8496882493632"><ele>58.0</ele><time>2026-04-28T08:07:01.818Z</time></trkpt><trkpt lat="39.298973406449484" lon="8.849926786484291"><ele>58.0</ele><time>2026-04-28T08:07:02.818Z</time></trkpt><trkpt lat="39.298916552949734" lon="8.85016973557622"><ele>57.33333333333333</ele><time>2026-04-28T08:07:03.818Z</time></trkpt><trkpt lat="39.29885616424947" lon="8.850405286481385"><ele>56.66666666666667</ele><time>2026-04-28T08:07:04.818Z</time></trkpt><trkpt lat="39.29879672993397" lon="8.850645184707398"><ele>56.0</ele><time>2026-04-28T08:07:05.818Z</time></trkpt><trkpt lat="39.29873658138603" lon="8.850884505618431"><ele>56.0</ele><time>2026-04-28T08:07:06.818Z</time></trkpt><trkpt lat="39.29868598635653" lon="8.851121872836925"><ele>56.0</ele><time>2026-04-28T08:07:07.818Z</time></trkpt><trkpt lat="39.29862747225296" lon="8.851359905408115"><ele>56.0</ele><time>2026-04-28T08:07:08.818Z</time></trkpt><trkpt lat="39.29860816320774" lon="8.851610069320728"><ele>55.66666666666667</ele><time>2026-04-28T08:07:09.818Z</time></trkpt><trkpt lat="39.2985848933707" lon="8.851855669500067"><ele>55.33333333333333</ele><time>2026-04-28T08:07:10.818Z</time></trkpt><trkpt lat="39.29857444947921" lon="8.852095357602819"><ele>55.0</ele><time>2026-04-28T08:07:11.818Z</time></trkpt><trkpt lat="39.29857557254587" lon="8.85231596362494"><ele>55.0</ele><time>2026-04-28T08:07:12.818Z</time></trkpt><trkpt lat="39.29858434154924" lon="8.852537146784554"><ele>55.0</ele><time>2026-04-28T08:07:13.818Z</time></trkpt><trkpt lat="39.29860322557512" lon="8.852762278340649"><ele>55.0</ele><time>2026-04-28T08:07:14.818Z</time></trkpt><trkpt lat="39.298626709331295" lon="8.852986373360274"><ele>54.33333333333333</ele><time>2026-04-28T08:07:15.818Z</time></trkpt><trkpt lat="39.29862499085526" lon="8.853204758776604"><ele>53.66666666666667</ele><time>2026-04-28T08:07:16.818Z</time></trkpt><trkpt lat="39.29865634466573" lon="8.853426373218646"><ele>53.0</ele><time>2026-04-28T08:07:17.817Z</time></trkpt><trkpt lat="39.29868139145261" lon="8.853657177380384"><ele>53.0</ele><time>2026-04-28T08:07:18.817Z</time></trkpt><trkpt lat="39.29870699611312" lon="8.853889461029867"><ele>53.0</ele><time>2026-04-28T08:07:19.817Z</time></trkpt><trkpt lat="39.29873179297614" lon="8.854126378862357"><ele>53.0</ele><time>2026-04-28T08:07:20.817Z</time></trkpt><trkpt lat="39.29876009794573" lon="8.854372926081378"><ele>53.0</ele><time>2026-04-28T08:07:21.817Z</time></trkpt><trkpt lat="39.298788037324826" lon="8.854617816932718"><ele>53.0</ele><time>2026-04-28T08:07:22.817Z</time></trkpt><trkpt lat="39.29882000633537" lon="8.854865766819538"><ele>53.0</ele><time>2026-04-28T08:07:23.817Z</time></trkpt><trkpt lat="39.29884920720196" lon="8.855107650697073"><ele>52.333333333333336</ele><time>2026-04-28T08:07:24.817Z</time></trkpt><trkpt lat="39.298878334087256" lon="8.855347824120262"><ele>51.66666666666667</ele><time>2026-04-28T08:07:25.817Z</time></trkpt><trkpt lat="39.29890634559698" lon="8.855588187320542"><ele>51.0</ele><time>2026-04-28T08:07:26.817Z</time></trkpt><trkpt lat="39.29893572998379" lon="8.855832630986914"><ele>51.33333333333333</ele><time>2026-04-28T08:07:27.817Z</time></trkpt><trkpt lat="39.2989659940358" lon="8.856073490232667"><ele>51.666666666666664</ele><time>2026-04-28T08:07:28.817Z</time></trkpt><trkpt lat="39.29899311487901" lon="8.856312399694273"><ele>52.0</ele><time>2026-04-28T08:07:29.817Z</time></trkpt><trkpt lat="39.29901736896654" lon="8.856546966313505"><ele>52.0</ele><time>2026-04-28T08:07:30.817Z</time></trkpt><trkpt lat="39.2990434424294" lon="8.8567883197826"><ele>52.0</ele><time>2026-04-28T08:07:31.817Z</time></trkpt><trkpt lat="39.299069729746016" lon="8.857032583600498"><ele>52.0</ele><time>2026-04-28T08:07:32.817Z</time></trkpt><trkpt lat="39.29909658771044" lon="8.857275268257354"><ele>52.0</ele><time>2026-04-28T08:07:33.817Z</time></trkpt><trkpt lat="39.299124649730736" lon="8.857519328720747"><ele>52.0</ele><time>2026-04-28T08:07:34.817Z</time></trkpt><trkpt lat="39.29915344796539" lon="8.85776584366513"><ele>52.0</ele><time>2026-04-28T08:07:35.817Z</time></trkpt><trkpt lat="39.29918238267973" lon="8.858015087826725"><ele>51.0</ele><time>2026-04-28T08:07:36.817Z</time></trkpt><trkpt lat="39.299212927289105" lon="8.858272695963748"><ele>50.0</ele><time>2026-04-28T08:07:37.817Z</time></trkpt><trkpt lat="39.29924436053517" lon="8.858531550847704"><ele>49.0</ele><time>2026-04-28T08:07:38.817Z</time></trkpt><trkpt lat="39.29926294168245" lon="8.858809139048754"><ele>49.0</ele><time>2026-04-28T08:07:39.817Z</time></trkpt><trkpt lat="39.29929170904564" lon="8.859069556405165"><ele>49.0</ele><time>2026-04-28T08:07:40.817Z</time></trkpt><trkpt lat="39.299321297975695" lon="8.859337410045722"><ele>49.0</ele><time>2026-04-28T08:07:41.817Z</time></trkpt><trkpt lat="39.29935083249355" lon="8.859604772434198"><ele>48.33333333333333</ele><time>2026-04-28T08:07:42.817Z</time></trkpt><trkpt lat="39.29937945331697" lon="8.859863862538276"><ele>47.666666666666664</ele><time>2026-04-28T08:07:43.817Z</time></trkpt><trkpt lat="39.29940668317932" lon="8.860110361040583"><ele>47.0</ele><time>2026-04-28T08:07:44.817Z</time></trkpt><trkpt lat="39.2994299190952" lon="8.860320704564739"><ele>47.0</ele><time>2026-04-28T08:07:45.817Z</time></trkpt><trkpt lat="39.299453116097496" lon="8.860530695192459"><ele>47.0</ele><time>2026-04-28T08:07:46.817Z</time></trkpt><trkpt lat="39.29947803057196" lon="8.86075623414925"><ele>47.0</ele><time>2026-04-28T08:07:47.817Z</time></trkpt><trkpt lat="39.29950260475054" lon="8.860978692154214"><ele>47.0</ele><time>2026-04-28T08:07:48.817Z</time></trkpt><trkpt lat="39.29952728861587" lon="8.861202143318677"><ele>47.0</ele><time>2026-04-28T08:07:49.817Z</time></trkpt><trkpt lat="39.29954774062814" lon="8.861421691484674"><ele>47.0</ele><time>2026-04-28T08:07:50.817Z</time></trkpt><trkpt lat="39.29955891552953" lon="8.861638920311394"><ele>46.33333333333333</ele><time>2026-04-28T08:07:51.816Z</time></trkpt><trkpt lat="39.299567503696224" lon="8.861846970175081"><ele>45.666666666666664</ele><time>2026-04-28T08:07:52.816Z</time></trkpt><trkpt lat="39.299539698360114" lon="8.862060548147689"><ele>45.0</ele><time>2026-04-28T08:07:53.816Z</time></trkpt><trkpt lat="39.29950721525965" lon="8.862291550859775"><ele>45.0</ele><time>2026-04-28T08:07:54.816Z</time></trkpt><trkpt lat="39.29946562710312" lon="8.862515067230259"><ele>45.0</ele><time>2026-04-28T08:07:55.816Z</time></trkpt><trkpt lat="39.29942970390166" lon="8.862752159840557"><ele>45.0</ele><time>2026-04-28T08:07:56.817Z</time></trkpt><trkpt lat="39.29940811440355" lon="8.863011736528833"><ele>45.0</ele><time>2026-04-28T08:07:57.816Z</time></trkpt><trkpt lat="39.29936760388213" lon="8.863252024787192"><ele>45.0</ele><time>2026-04-28T08:07:58.816Z</time></trkpt><trkpt lat="39.29932869283279" lon="8.863488379897655"><ele>45.0</ele><time>2026-04-28T08:07:59.817Z</time></trkpt><trkpt lat="39.29928521339792" lon="8.863714561521485"><ele>45.0</ele><time>2026-04-28T08:08:00.816Z</time></trkpt><trkpt lat="39.299245961013554" lon="8.863946034553742"><ele>45.0</ele><time>2026-04-28T08:08:01.816Z</time></trkpt><trkpt lat="39.299205252518206" lon="8.864177492850967"><ele>45.0</ele><time>2026-04-28T08:08:02.816Z</time></trkpt><trkpt lat="39.29916149098413" lon="8.864411677724146"><ele>44.666666666666664</ele><time>2026-04-28T08:08:03.817Z</time></trkpt><trkpt lat="39.29911921466278" lon="8.864647040878546"><ele>44.33333333333333</ele><time>2026-04-28T08:08:04.817Z</time></trkpt><trkpt lat="39.2990818340029" lon="8.864879012163854"><ele>44.0</ele><time>2026-04-28T08:08:05.817Z</time></trkpt><trkpt lat="39.29905259306183" lon="8.865106444822025"><ele>43.666666666666664</ele><time>2026-04-28T08:08:06.817Z</time></trkpt><trkpt lat="39.29903264720923" lon="8.865331876443017"><ele>43.333333333333336</ele><time>2026-04-28T08:08:07.817Z</time></trkpt><trkpt lat="39.299025180438925" lon="8.86555575890683"><ele>43.0</ele><time>2026-04-28T08:08:08.817Z</time></trkpt><trkpt lat="39.299026269391504" lon="8.865805529893668"><ele>42.66666666666667</ele><time>2026-04-28T08:08:09.817Z</time></trkpt><trkpt lat="39.2990321068231" lon="8.866056149758172"><ele>42.333333333333336</ele><time>2026-04-28T08:08:10.817Z</time></trkpt><trkpt lat="39.29904376614139" lon="8.866310218533881"><ele>42.0</ele><time>2026-04-28T08:08:11.817Z</time></trkpt><trkpt lat="39.29905548238971" lon="8.866563364164122"><ele>42.333333333333336</ele><time>2026-04-28T08:08:12.817Z</time></trkpt><trkpt lat="39.2990672268427" lon="8.866819106204371"><ele>42.66666666666667</ele><time>2026-04-28T08:08:13.817Z</time></trkpt><trkpt lat="39.29907562778265" lon="8.867071615370639"><ele>43.0</ele><time>2026-04-28T08:08:14.817Z</time></trkpt><trkpt lat="39.29908481322873" lon="8.867320785602812"><ele>43.0</ele><time>2026-04-28T08:08:15.817Z</time></trkpt><trkpt lat="39.29909580564197" lon="8.867573328612332"><ele>43.0</ele><time>2026-04-28T08:08:16.816Z</time></trkpt><trkpt lat="39.299106596440474" lon="8.86782639768476"><ele>43.0</ele><time>2026-04-28T08:08:17.816Z</time></trkpt><trkpt lat="39.29911879420525" lon="8.86807974311938"><ele>43.0</ele><time>2026-04-28T08:08:18.816Z</time></trkpt><trkpt lat="39.29913165245811" lon="8.868335722871759"><ele>43.0</ele><time>2026-04-28T08:08:19.816Z</time></trkpt><trkpt lat="39.2991422693753" lon="8.86858077084392"><ele>43.0</ele><time>2026-04-28T08:08:20.816Z</time></trkpt><trkpt lat="39.299158071768694" lon="8.868821508065288"><ele>43.0</ele><time>2026-04-28T08:08:21.816Z</time></trkpt><trkpt lat="39.299177591995964" lon="8.869053768426253"><ele>43.0</ele><time>2026-04-28T08:08:22.816Z</time></trkpt><trkpt lat="39.29921236274306" lon="8.86928566434456"><ele>43.0</ele><time>2026-04-28T08:08:23.816Z</time></trkpt><trkpt lat="39.29925719058351" lon="8.869518238608833"><ele>42.0</ele><time>2026-04-28T08:08:24.816Z</time></trkpt><trkpt lat="39.29930881416878" lon="8.869741876852332"><ele>41.0</ele><time>2026-04-28T08:08:25.816Z</time></trkpt><trkpt lat="39.299374393595286" lon="8.869969180606926"><ele>40.0</ele><time>2026-04-28T08:08:26.816Z</time></trkpt><trkpt lat="39.29943729204356" lon="8.870194844025749"><ele>39.66666666666667</ele><time>2026-04-28T08:08:27.816Z</time></trkpt><trkpt lat="39.29949843808125" lon="8.870414034083689"><ele>39.333333333333336</ele><time>2026-04-28T08:08:28.816Z</time></trkpt><trkpt lat="39.29955340252437" lon="8.87063615856311"><ele>39.0</ele><time>2026-04-28T08:08:29.816Z</time></trkpt><trkpt lat="39.29961315326374" lon="8.87087065576986"><ele>39.0</ele><time>2026-04-28T08:08:30.816Z</time></trkpt><trkpt lat="39.29967063820466" lon="8.871108710111516"><ele>39.0</ele><time>2026-04-28T08:08:31.816Z</time></trkpt><trkpt lat="39.299722813551035" lon="8.871347837766965"><ele>39.0</ele><time>2026-04-28T08:08:32.816Z</time></trkpt><trkpt lat="39.29976836767185" lon="8.871590790744948"><ele>38.666666666666664</ele><time>2026-04-28T08:08:33.816Z</time></trkpt><trkpt lat="39.299800965812324" lon="8.871827682942216"><ele>38.33333333333333</ele><time>2026-04-28T08:08:34.816Z</time></trkpt><trkpt lat="39.29982873371731" lon="8.872070767202278"><ele>38.0</ele><time>2026-04-28T08:08:35.816Z</time></trkpt><trkpt lat="39.29984453778871" lon="8.872311450773731"><ele>38.0</ele><time>2026-04-28T08:08:36.816Z</time></trkpt><trkpt lat="39.29985219317317" lon="8.872556348235923"><ele>38.0</ele><time>2026-04-28T08:08:37.816Z</time></trkpt><trkpt lat="39.29985675228883" lon="8.872806165847006"><ele>38.0</ele><time>2026-04-28T08:08:38.816Z</time></trkpt><trkpt lat="39.299854486865236" lon="8.873055998962062"><ele>38.33333333333333</ele><time>2026-04-28T08:08:39.816Z</time></trkpt><trkpt lat="39.299850492078086" lon="8.87329939064147"><ele>38.666666666666664</ele><time>2026-04-28T08:08:40.816Z</time></trkpt><trkpt lat="39.29983953914447" lon="8.87353664954069"><ele>39.0</ele><time>2026-04-28T08:08:41.816Z</time></trkpt><trkpt lat="39.29983159077921" lon="8.873773361073523"><ele>38.333333333333336</ele><time>2026-04-28T08:08:42.816Z</time></trkpt><trkpt lat="39.29982765928017" lon="8.874016506238108"><ele>37.66666666666667</ele><time>2026-04-28T08:08:43.816Z</time></trkpt><trkpt lat="39.299831390358506" lon="8.874268190235885"><ele>37.0</ele><time>2026-04-28T08:08:44.816Z</time></trkpt><trkpt lat="39.299825874818765" lon="8.874512265743045"><ele>36.333333333333336</ele><time>2026-04-28T08:08:45.816Z</time></trkpt><trkpt lat="39.2998195421965" lon="8.87475739777603"><ele>35.666666666666664</ele><time>2026-04-28T08:08:46.816Z</time></trkpt><trkpt lat="39.29981097763512" lon="8.874997602755887"><ele>35.0</ele><time>2026-04-28T08:08:47.816Z</time></trkpt><trkpt lat="39.299816947690964" lon="8.875253279824317"><ele>34.666666666666664</ele><time>2026-04-28T08:08:48.816Z</time></trkpt><trkpt lat="39.29982111649962" lon="8.875501855464666"><ele>34.333333333333336</ele><time>2026-04-28T08:08:49.816Z</time></trkpt><trkpt lat="39.2998277188746" lon="8.875754596291914"><ele>34.0</ele><time>2026-04-28T08:08:50.816Z</time></trkpt><trkpt lat="39.299826511032705" lon="8.87600057579354"><ele>34.0</ele><time>2026-04-28T08:08:51.816Z</time></trkpt><trkpt lat="39.29982557912281" lon="8.87624286684265"><ele>34.0</ele><time>2026-04-28T08:08:52.816Z</time></trkpt><trkpt lat="39.29982450392993" lon="8.876485711046815"><ele>34.0</ele><time>2026-04-28T08:08:53.816Z</time></trkpt><trkpt lat="39.29982602011327" lon="8.876728157253345"><ele>33.66666666666667</ele><time>2026-04-28T08:08:54.816Z</time></trkpt><trkpt lat="39.29983158730858" lon="8.876970086449594"><ele>33.333333333333336</ele><time>2026-04-28T08:08:55.816Z</time></trkpt><trkpt lat="39.29984100119921" lon="8.877217224467875"><ele>33.0</ele><time>2026-04-28T08:08:56.816Z</time></trkpt><trkpt lat="39.299850425905994" lon="8.877462235436129"><ele>32.666666666666664</ele><time>2026-04-28T08:08:57.816Z</time></trkpt><trkpt lat="39.29986149031088" lon="8.877706501254462"><ele>32.33333333333333</ele><time>2026-04-28T08:08:58.816Z</time></trkpt><trkpt lat="39.29986970322875" lon="8.877951034032142"><ele>32.0</ele><time>2026-04-28T08:08:59.816Z</time></trkpt><trkpt lat="39.29987941008172" lon="8.87818981273632"><ele>32.0</ele><time>2026-04-28T08:09:00.816Z</time></trkpt><trkpt lat="39.29989268041284" lon="8.878430477998231"><ele>32.0</ele><time>2026-04-28T08:09:01.816Z</time></trkpt><trkpt lat="39.29990603643076" lon="8.878668883476237"><ele>32.0</ele><time>2026-04-28T08:09:02.816Z</time></trkpt><trkpt lat="39.29992064622499" lon="8.878903097524146"><ele>32.666666666666664</ele><time>2026-04-28T08:09:03.816Z</time></trkpt><trkpt lat="39.299932110392575" lon="8.879133896130831"><ele>33.333333333333336</ele><time>2026-04-28T08:09:04.816Z</time></trkpt><trkpt lat="39.29994337202214" lon="8.879353777251334"><ele>34.0</ele><time>2026-04-28T08:09:05.816Z</time></trkpt><trkpt lat="39.299957396924505" lon="8.879575532052549"><ele>34.0</ele><time>2026-04-28T08:09:06.816Z</time></trkpt><trkpt lat="39.29997157782273" lon="8.879799816745445"><ele>34.0</ele><time>2026-04-28T08:09:07.816Z</time></trkpt><trkpt lat="39.299989386737195" lon="8.88003044342131"><ele>34.0</ele><time>2026-04-28T08:09:08.816Z</time></trkpt><trkpt lat="39.30000639945508" lon="8.880261792699743"><ele>33.333333333333336</ele><time>2026-04-28T08:09:09.816Z</time></trkpt><trkpt lat="39.30002138072638" lon="8.880496370838733"><ele>32.666666666666664</ele><time>2026-04-28T08:09:10.816Z</time></trkpt><trkpt lat="39.30003663897653" lon="8.880738788131946"><ele>32.0</ele><time>2026-04-28T08:09:11.816Z</time></trkpt><trkpt lat="39.300052056028115" lon="8.880978663597698"><ele>31.666666666666664</ele><time>2026-04-28T08:09:12.816Z</time></trkpt><trkpt lat="39.3000693669982" lon="8.881220141186935"><ele>31.333333333333336</ele><time>2026-04-28T08:09:13.816Z</time></trkpt><trkpt lat="39.30008750330688" lon="8.88146289272472"><ele>31.0</ele><time>2026-04-28T08:09:14.816Z</time></trkpt><trkpt lat="39.30008554428474" lon="8.881709221331962"><ele>30.333333333333336</ele><time>2026-04-28T08:09:15.816Z</time></trkpt><trkpt lat="39.30010017977021" lon="8.881957827017812"><ele>29.666666666666664</ele><time>2026-04-28T08:09:16.816Z</time></trkpt><trkpt lat="39.30011483493008" lon="8.882206766927357"><ele>29.0</ele><time>2026-04-28T08:09:17.816Z</time></trkpt><trkpt lat="39.30012984394831" lon="8.882461717651223"><ele>28.666666666666664</ele><time>2026-04-28T08:09:18.816Z</time></trkpt><trkpt lat="39.30014508708748" lon="8.88272064525773"><ele>28.333333333333336</ele><time>2026-04-28T08:09:19.816Z</time></trkpt><trkpt lat="39.30016059277755" lon="8.882984032678689"><ele>28.0</ele><time>2026-04-28T08:09:20.816Z</time></trkpt><trkpt lat="39.30017650302582" lon="8.883254292152966"><ele>28.0</ele><time>2026-04-28T08:09:21.816Z</time></trkpt><trkpt lat="39.30019222752519" lon="8.88352139639482"><ele>28.0</ele><time>2026-04-28T08:09:22.816Z</time></trkpt><trkpt lat="39.30020794844199" lon="8.883788439769573"><ele>28.0</ele><time>2026-04-28T08:09:23.816Z</time></trkpt><trkpt lat="39.30022415017346" lon="8.884063650528445"><ele>27.333333333333336</ele><time>2026-04-28T08:09:24.816Z</time></trkpt><trkpt lat="39.300256655496206" lon="8.88433375410048"><ele>26.666666666666664</ele><time>2026-04-28T08:09:25.816Z</time></trkpt><trkpt lat="39.30027180666709" lon="8.88460799588326"><ele>26.0</ele><time>2026-04-28T08:09:26.816Z</time></trkpt><trkpt lat="39.30028722700792" lon="8.884883495553273"><ele>26.333333333333332</ele><time>2026-04-28T08:09:27.816Z</time></trkpt><trkpt lat="39.300300647475254" lon="8.885158811309685"><ele>26.666666666666664</ele><time>2026-04-28T08:09:28.816Z</time></trkpt><trkpt lat="39.30031460339697" lon="8.885434836127788"><ele>27.0</ele><time>2026-04-28T08:09:29.816Z</time></trkpt><trkpt lat="39.300331265858766" lon="8.885715247952824"><ele>27.0</ele><time>2026-04-28T08:09:30.816Z</time></trkpt><trkpt lat="39.3003472206865" lon="8.88600019214815"><ele>27.0</ele><time>2026-04-28T08:09:31.816Z</time></trkpt><trkpt lat="39.30036390350162" lon="8.886281811913628"><ele>27.0</ele><time>2026-04-28T08:09:32.816Z</time></trkpt><trkpt lat="39.300377921026225" lon="8.886567108835884"><ele>27.0</ele><time>2026-04-28T08:09:33.816Z</time></trkpt><trkpt lat="39.30039166660753" lon="8.886855214136304"><ele>27.0</ele><time>2026-04-28T08:09:34.816Z</time></trkpt><trkpt lat="39.30040871880523" lon="8.88714698896362"><ele>27.0</ele><time>2026-04-28T08:09:35.816Z</time></trkpt><trkpt lat="39.30042376380315" lon="8.887438300736024"><ele>27.0</ele><time>2026-04-28T08:09:36.816Z</time></trkpt><trkpt lat="39.30044033933268" lon="8.887732064741193"><ele>27.0</ele><time>2026-04-28T08:09:37.816Z</time></trkpt><trkpt lat="39.3004576602981" lon="8.88802767310056"><ele>27.0</ele><time>2026-04-28T08:09:38.816Z</time></trkpt><trkpt lat="39.30047413972349" lon="8.888319190205891"><ele>27.5</ele><time>2026-04-28T08:09:39.816Z</time></trkpt><trkpt lat="39.30049160443247" lon="8.888611394073662"><ele>28.0</ele><time>2026-04-28T08:09:40.816Z</time></trkpt><trkpt lat="39.300507047885105" lon="8.888903060489268"><ele>28.0</ele><time>2026-04-28T08:09:41.816Z</time></trkpt><trkpt lat="39.30052349105018" lon="8.889201215580014"><ele>28.0</ele><time>2026-04-28T08:09:42.816Z</time></trkpt><trkpt lat="39.30054022654368" lon="8.88950112750717"><ele>28.0</ele><time>2026-04-28T08:09:43.816Z</time></trkpt><trkpt lat="39.30055490437591" lon="8.88980111296963"><ele>28.0</ele><time>2026-04-28T08:09:44.816Z</time></trkpt><trkpt lat="39.30057084727472" lon="8.890100521101957"><ele>27.0</ele><time>2026-04-28T08:09:45.816Z</time></trkpt><trkpt lat="39.30058617394814" lon="8.890401235445593"><ele>26.0</ele><time>2026-04-28T08:09:46.816Z</time></trkpt><trkpt lat="39.300601868584565" lon="8.890698106779384"><ele>26.0</ele><time>2026-04-28T08:09:47.816Z</time></trkpt><trkpt lat="39.30061918056001" lon="8.890995180858939"><ele>26.0</ele><time>2026-04-28T08:09:48.816Z</time></trkpt><trkpt lat="39.30063592827383" lon="8.891294623724487"><ele>26.0</ele><time>2026-04-28T08:09:49.816Z</time></trkpt><trkpt lat="39.30065295562626" lon="8.891600852085856"><ele>26.0</ele><time>2026-04-28T08:09:50.816Z</time></trkpt><trkpt lat="39.3006671963583" lon="8.891903024345854"><ele>25.5</ele><time>2026-04-28T08:09:51.816Z</time></trkpt><trkpt lat="39.300682344746484" lon="8.892208440947021"><ele>25.0</ele><time>2026-04-28T08:09:52.816Z</time></trkpt><trkpt lat="39.300698477097136" lon="8.892516093299125"><ele>24.0</ele><time>2026-04-28T08:09:53.816Z</time></trkpt><trkpt lat="39.30071703831021" lon="8.892812246598872"><ele>23.0</ele><time>2026-04-28T08:09:54.816Z</time></trkpt><trkpt lat="39.300737507678015" lon="8.893111714079646"><ele>23.0</ele><time>2026-04-28T08:09:55.816Z</time></trkpt><trkpt lat="39.300753423095415" lon="8.89341016694493"><ele>23.0</ele><time>2026-04-28T08:09:56.815Z</time></trkpt><trkpt lat="39.30076770228821" lon="8.893706324146153"><ele>23.5</ele><time>2026-04-28T08:09:57.815Z</time></trkpt><trkpt lat="39.300786757016105" lon="8.893999636494863"><ele>24.0</ele><time>2026-04-28T08:09:58.815Z</time></trkpt><trkpt lat="39.300807217643566" lon="8.894301072566572"><ele>25.0</ele><time>2026-04-28T08:09:59.814Z</time></trkpt><trkpt lat="39.300823680798274" lon="8.894597712975095"><ele>26.0</ele><time>2026-04-28T08:10:00.815Z</time></trkpt><trkpt lat="39.30083861226068" lon="8.89489038488049"><ele>26.333333333333332</ele><time>2026-04-28T08:10:01.815Z</time></trkpt><trkpt lat="39.30085921207539" lon="8.895180687388727"><ele>26.666666666666664</ele><time>2026-04-28T08:10:02.814Z</time></trkpt><trkpt lat="39.30087515633254" lon="8.89546764861838"><ele>27.0</ele><time>2026-04-28T08:10:03.815Z</time></trkpt><trkpt lat="39.3008941917731" lon="8.895758805681396"><ele>26.0</ele><time>2026-04-28T08:10:04.815Z</time></trkpt><trkpt lat="39.30091558360178" lon="8.896052525491957"><ele>25.0</ele><time>2026-04-28T08:10:05.815Z</time></trkpt><trkpt lat="39.30093214584374" lon="8.89634695436137"><ele>25.0</ele><time>2026-04-28T08:10:06.814Z</time></trkpt><trkpt lat="39.300951203851575" lon="8.896649679152944"><ele>25.0</ele><time>2026-04-28T08:10:07.814Z</time></trkpt><trkpt lat="39.30096895581783" lon="8.896948881649118"><ele>25.0</ele><time>2026-04-28T08:10:08.814Z</time></trkpt><trkpt lat="39.300985389294986" lon="8.897252823071552"><ele>25.0</ele><time>2026-04-28T08:10:09.814Z</time></trkpt><trkpt lat="39.30100429563175" lon="8.897557545020383"><ele>25.0</ele><time>2026-04-28T08:10:10.814Z</time></trkpt><trkpt lat="39.301019958591105" lon="8.897861326548368"><ele>25.0</ele><time>2026-04-28T08:10:11.814Z</time></trkpt><trkpt lat="39.30103840673017" lon="8.898164385263703"><ele>23.5</ele><time>2026-04-28T08:10:12.814Z</time></trkpt><trkpt lat="39.30105742066077" lon="8.89846621449401"><ele>22.0</ele><time>2026-04-28T08:10:13.814Z</time></trkpt><trkpt lat="39.3010737238124" lon="8.898768768604329"><ele>22.0</ele><time>2026-04-28T08:10:14.814Z</time></trkpt><trkpt lat="39.30109040338564" lon="8.899072872351997"><ele>22.0</ele><time>2026-04-28T08:10:15.814Z</time></trkpt><trkpt lat="39.30110773388933" lon="8.899375835644634"><ele>22.5</ele><time>2026-04-28T08:10:16.814Z</time></trkpt><trkpt lat="39.30112724953169" lon="8.899682649082669"><ele>23.0</ele><time>2026-04-28T08:10:17.814Z</time></trkpt><trkpt lat="39.30114282327575" lon="8.89998684137635"><ele>23.0</ele><time>2026-04-28T08:10:18.814Z</time></trkpt><trkpt lat="39.301162771590306" lon="8.900290074007"><ele>23.0</ele><time>2026-04-28T08:10:19.814Z</time></trkpt><trkpt lat="39.30118279430051" lon="8.90059121420928"><ele>23.0</ele><time>2026-04-28T08:10:20.814Z</time></trkpt><trkpt lat="39.301200220992726" lon="8.900890360518373"><ele>23.0</ele><time>2026-04-28T08:10:21.814Z</time></trkpt><trkpt lat="39.3012184835363" lon="8.901193499158204"><ele>21.0</ele><time>2026-04-28T08:10:22.814Z</time></trkpt><trkpt lat="39.301235972359905" lon="8.901498173031545"><ele>19.0</ele><time>2026-04-28T08:10:23.814Z</time></trkpt><trkpt lat="39.30125417730249" lon="8.901799230015705"><ele>18.5</ele><time>2026-04-28T08:10:24.814Z</time></trkpt><trkpt lat="39.30127335813527" lon="8.902099395129149"><ele>18.0</ele><time>2026-04-28T08:10:25.814Z</time></trkpt><trkpt lat="39.301295138253906" lon="8.902401448845392"><ele>19.0</ele><time>2026-04-28T08:10:26.814Z</time></trkpt><trkpt lat="39.301312869979725" lon="8.902700748260177"><ele>20.0</ele><time>2026-04-28T08:10:27.814Z</time></trkpt><trkpt lat="39.30133075901332" lon="8.90299973910949"><ele>20.0</ele><time>2026-04-28T08:10:28.814Z</time></trkpt><trkpt lat="39.30134788465603" lon="8.903293267254863"><ele>20.0</ele><time>2026-04-28T08:10:29.814Z</time></trkpt><trkpt lat="39.301364297318784" lon="8.903585832652947"><ele>20.5</ele><time>2026-04-28T08:10:30.814Z</time></trkpt><trkpt lat="39.30138193944552" lon="8.903878750866006"><ele>21.0</ele><time>2026-04-28T08:10:31.814Z</time></trkpt><trkpt lat="39.301396491738636" lon="8.904170229429864"><ele>20.666666666666668</ele><time>2026-04-28T08:10:32.814Z</time></trkpt><trkpt lat="39.30141435738573" lon="8.904458734408585"><ele>20.333333333333336</ele><time>2026-04-28T08:10:33.814Z</time></trkpt><trkpt lat="39.301432348263376" lon="8.904745974622989"><ele>20.0</ele><time>2026-04-28T08:10:34.814Z</time></trkpt><trkpt lat="39.301448834709376" lon="8.905031483972104"><ele>19.333333333333336</ele><time>2026-04-28T08:10:35.814Z</time></trkpt><trkpt lat="39.30146670198155" lon="8.9053198576187"><ele>18.666666666666668</ele><time>2026-04-28T08:10:36.814Z</time></trkpt><trkpt lat="39.30148601347062" lon="8.905607302542048"><ele>18.0</ele><time>2026-04-28T08:10:37.814Z</time></trkpt><trkpt lat="39.301501274798916" lon="8.905888294695886"><ele>18.666666666666668</ele><time>2026-04-28T08:10:38.814Z</time></trkpt><trkpt lat="39.30151745574607" lon="8.906167297252606"><ele>19.333333333333336</ele><time>2026-04-28T08:10:39.814Z</time></trkpt><trkpt lat="39.301530745800136" lon="8.906435448927763"><ele>20.0</ele><time>2026-04-28T08:10:40.814Z</time></trkpt><trkpt lat="39.30154551959512" lon="8.90669532415811"><ele>20.666666666666668</ele><time>2026-04-28T08:10:41.814Z</time></trkpt><trkpt lat="39.301560343448365" lon="8.90695611233225"><ele>21.333333333333332</ele><time>2026-04-28T08:10:42.814Z</time></trkpt><trkpt lat="39.30157828022025" lon="8.907222221549743"><ele>22.0</ele><time>2026-04-28T08:10:43.814Z</time></trkpt><trkpt lat="39.30159392927448" lon="8.90749400381774"><ele>22.333333333333332</ele><time>2026-04-28T08:10:44.814Z</time></trkpt><trkpt lat="39.30160868763363" lon="8.907769215768871"><ele>22.666666666666668</ele><time>2026-04-28T08:10:45.814Z</time></trkpt><trkpt lat="39.30162709286984" lon="8.908047570880278"><ele>23.0</ele><time>2026-04-28T08:10:46.814Z</time></trkpt><trkpt lat="39.30164311098875" lon="8.908328390529382"><ele>23.0</ele><time>2026-04-28T08:10:47.814Z</time></trkpt><trkpt lat="39.3016588447472" lon="8.908605428604114"><ele>23.0</ele><time>2026-04-28T08:10:48.814Z</time></trkpt><trkpt lat="39.30167515703261" lon="8.908866777140169"><ele>23.0</ele><time>2026-04-28T08:10:49.814Z</time></trkpt><trkpt lat="39.301685724027735" lon="8.909112495676466"><ele>22.666666666666668</ele><time>2026-04-28T08:10:50.814Z</time></trkpt><trkpt lat="39.30170284917419" lon="8.909349087279603"><ele>22.333333333333332</ele><time>2026-04-28T08:10:51.814Z</time></trkpt><trkpt lat="39.301715087086464" lon="8.90957806154667"><ele>22.0</ele><time>2026-04-28T08:10:52.814Z</time></trkpt><trkpt lat="39.301726847297424" lon="8.909804628631898"><ele>22.0</ele><time>2026-04-28T08:10:53.814Z</time></trkpt><trkpt lat="39.30174364032965" lon="8.910030641807522"><ele>22.0</ele><time>2026-04-28T08:10:54.814Z</time></trkpt><trkpt lat="39.30176155468966" lon="8.910265269181838"><ele>22.0</ele><time>2026-04-28T08:10:55.814Z</time></trkpt><trkpt lat="39.30177706609388" lon="8.910501702019813"><ele>21.333333333333332</ele><time>2026-04-28T08:10:56.814Z</time></trkpt><trkpt lat="39.30179178427974" lon="8.910739738124057"><ele>20.666666666666668</ele><time>2026-04-28T08:10:57.814Z</time></trkpt><trkpt lat="39.30180697946475" lon="8.910978490878504"><ele>20.0</ele><time>2026-04-28T08:10:58.814Z</time></trkpt><trkpt lat="39.301821648850634" lon="8.911220842792346"><ele>19.0</ele><time>2026-04-28T08:10:59.814Z</time></trkpt><trkpt lat="39.301834106535566" lon="8.91146541265465"><ele>18.0</ele><time>2026-04-28T08:11:00.814Z</time></trkpt><trkpt lat="39.301847776123395" lon="8.911711467433339"><ele>17.0</ele><time>2026-04-28T08:11:01.814Z</time></trkpt><trkpt lat="39.30186313213476" lon="8.911961765848982"><ele>16.666666666666668</ele><time>2026-04-28T08:11:02.814Z</time></trkpt><trkpt lat="39.30187208258211" lon="8.91221231147903"><ele>16.333333333333332</ele><time>2026-04-28T08:11:03.814Z</time></trkpt><trkpt lat="39.30188438012704" lon="8.91246570511279"><ele>16.0</ele><time>2026-04-28T08:11:04.814Z</time></trkpt><trkpt lat="39.301896675772" lon="8.912717899133657"><ele>16.0</ele><time>2026-04-28T08:11:05.814Z</time></trkpt><trkpt lat="39.30191266463164" lon="8.912972600933593"><ele>16.0</ele><time>2026-04-28T08:11:06.814Z</time></trkpt><trkpt lat="39.301926101670105" lon="8.913227881450702"><ele>16.0</ele><time>2026-04-28T08:11:07.814Z</time></trkpt><trkpt lat="39.30193985017357" lon="8.913480997368747"><ele>15.666666666666666</ele><time>2026-04-28T08:11:08.814Z</time></trkpt><trkpt lat="39.30195430430477" lon="8.913732750900072"><ele>15.333333333333332</ele><time>2026-04-28T08:11:09.814Z</time></trkpt><trkpt lat="39.301970502722504" lon="8.913989395288718"><ele>15.0</ele><time>2026-04-28T08:11:10.814Z</time></trkpt><trkpt lat="39.301985415818685" lon="8.914239345114488"><ele>15.0</ele><time>2026-04-28T08:11:11.814Z</time></trkpt><trkpt lat="39.30200134003436" lon="8.91449487265833"><ele>15.0</ele><time>2026-04-28T08:11:12.814Z</time></trkpt><trkpt lat="39.30201842219777" lon="8.914750631953895"><ele>15.0</ele><time>2026-04-28T08:11:13.814Z</time></trkpt><trkpt lat="39.302033104189576" lon="8.915008742093285"><ele>15.333333333333332</ele><time>2026-04-28T08:11:14.814Z</time></trkpt><trkpt lat="39.3020445432392" lon="8.915269655228977"><ele>15.666666666666666</ele><time>2026-04-28T08:11:15.814Z</time></trkpt><trkpt lat="39.30205870705049" lon="8.915531167810544"><ele>16.0</ele><time>2026-04-28T08:11:16.814Z</time></trkpt><trkpt lat="39.302077024625575" lon="8.915788465755366"><ele>16.333333333333332</ele><time>2026-04-28T08:11:17.814Z</time></trkpt><trkpt lat="39.30209568218063" lon="8.916049888462563"><ele>16.666666666666668</ele><time>2026-04-28T08:11:18.814Z</time></trkpt><trkpt lat="39.3021116704145" lon="8.91631008700435"><ele>17.0</ele><time>2026-04-28T08:11:19.814Z</time></trkpt><trkpt lat="39.30212877392539" lon="8.916572849581884"><ele>16.666666666666668</ele><time>2026-04-28T08:11:20.814Z</time></trkpt><trkpt lat="39.30214219662391" lon="8.916834010015736"><ele>16.333333333333332</ele><time>2026-04-28T08:11:21.814Z</time></trkpt><trkpt lat="39.30215552973275" lon="8.9170943253034"><ele>16.0</ele><time>2026-04-28T08:11:22.814Z</time></trkpt><trkpt lat="39.302167838405204" lon="8.917355490971037"><ele>15.666666666666666</ele><time>2026-04-28T08:11:23.814Z</time></trkpt><trkpt lat="39.30218123659137" lon="8.917619366875396"><ele>15.333333333333332</ele><time>2026-04-28T08:11:24.814Z</time></trkpt><trkpt lat="39.30219802334748" lon="8.917886924015857"><ele>15.0</ele><time>2026-04-28T08:11:25.814Z</time></trkpt><trkpt lat="39.30221509242685" lon="8.918151119654974"><ele>15.333333333333332</ele><time>2026-04-28T08:11:26.814Z</time></trkpt><trkpt lat="39.30223158716025" lon="8.918420030069091"><ele>15.666666666666666</ele><time>2026-04-28T08:11:27.813Z</time></trkpt><trkpt lat="39.30224841745782" lon="8.918694468004233"><ele>16.0</ele><time>2026-04-28T08:11:28.813Z</time></trkpt><trkpt lat="39.302265444806295" lon="8.918970658684444"><ele>16.333333333333332</ele><time>2026-04-28T08:11:29.813Z</time></trkpt><trkpt lat="39.30228332173673" lon="8.919252545996107"><ele>16.666666666666668</ele><time>2026-04-28T08:11:30.813Z</time></trkpt><trkpt lat="39.302296700137056" lon="8.919534436777857"><ele>17.0</ele><time>2026-04-28T08:11:31.813Z</time></trkpt><trkpt lat="39.302311407564105" lon="8.919810454362752"><ele>16.0</ele><time>2026-04-28T08:11:32.813Z</time></trkpt><trkpt lat="39.30232734599402" lon="8.920087037262913"><ele>15.0</ele><time>2026-04-28T08:11:33.813Z</time></trkpt><trkpt lat="39.302343651089075" lon="8.920369179753905"><ele>14.0</ele><time>2026-04-28T08:11:34.813Z</time></trkpt><trkpt lat="39.30235766553371" lon="8.92064429103042"><ele>14.333333333333334</ele><time>2026-04-28T08:11:35.813Z</time></trkpt><trkpt lat="39.30237308063502" lon="8.920916789267276"><ele>14.666666666666668</ele><time>2026-04-28T08:11:36.813Z</time></trkpt><trkpt lat="39.302391005252865" lon="8.921191245684405"><ele>15.0</ele><time>2026-04-28T08:11:37.813Z</time></trkpt><trkpt lat="39.302405339450424" lon="8.921462911449153"><ele>15.0</ele><time>2026-04-28T08:11:38.813Z</time></trkpt><trkpt lat="39.30241974870331" lon="8.92173953940799"><ele>15.0</ele><time>2026-04-28T08:11:39.813Z</time></trkpt><trkpt lat="39.302435079845964" lon="8.922018318186566"><ele>15.0</ele><time>2026-04-28T08:11:40.813Z</time></trkpt><trkpt lat="39.302451277020985" lon="8.922293218027058"><ele>14.333333333333332</ele><time>2026-04-28T08:11:41.813Z</time></trkpt><trkpt lat="39.30247113213662" lon="8.922571332180718"><ele>13.666666666666666</ele><time>2026-04-28T08:11:42.813Z</time></trkpt><trkpt lat="39.30248809798834" lon="8.922847982012659"><ele>13.0</ele><time>2026-04-28T08:11:43.813Z</time></trkpt><trkpt lat="39.302507765373356" lon="8.923126536758248"><ele>12.666666666666666</ele><time>2026-04-28T08:11:44.813Z</time></trkpt><trkpt lat="39.302526950555716" lon="8.92340361170025"><ele>12.333333333333332</ele><time>2026-04-28T08:11:45.813Z</time></trkpt><trkpt lat="39.30254736914346" lon="8.92368534087282"><ele>12.0</ele><time>2026-04-28T08:11:46.813Z</time></trkpt><trkpt lat="39.302564644773234" lon="8.92396350541316"><ele>12.666666666666668</ele><time>2026-04-28T08:11:47.813Z</time></trkpt><trkpt lat="39.302579631016435" lon="8.924241341329234"><ele>13.333333333333334</ele><time>2026-04-28T08:11:48.813Z</time></trkpt><trkpt lat="39.30259384728064" lon="8.92451638805569"><ele>14.0</ele><time>2026-04-28T08:11:49.813Z</time></trkpt><trkpt lat="39.302609202605474" lon="8.924797797564858"><ele>14.333333333333334</ele><time>2026-04-28T08:11:50.813Z</time></trkpt><trkpt lat="39.30262405755341" lon="8.925082613092368"><ele>14.666666666666668</ele><time>2026-04-28T08:11:51.813Z</time></trkpt><trkpt lat="39.30264250486438" lon="8.92536903764861"><ele>15.0</ele><time>2026-04-28T08:11:52.813Z</time></trkpt><trkpt lat="39.30265458925226" lon="8.92564782108592"><ele>14.666666666666668</ele><time>2026-04-28T08:11:53.813Z</time></trkpt><trkpt lat="39.3026691827143" lon="8.925933024702841"><ele>14.333333333333334</ele><time>2026-04-28T08:11:54.813Z</time></trkpt><trkpt lat="39.30268691567753" lon="8.926216363442975"><ele>14.0</ele><time>2026-04-28T08:11:55.813Z</time></trkpt><trkpt lat="39.302702011476626" lon="8.926494327777748"><ele>14.333333333333334</ele><time>2026-04-28T08:11:56.813Z</time></trkpt><trkpt lat="39.30271643957656" lon="8.926771416250327"><ele>14.666666666666668</ele><time>2026-04-28T08:11:57.813Z</time></trkpt><trkpt lat="39.30273162909449" lon="8.927051446494822"><ele>15.0</ele><time>2026-04-28T08:11:58.813Z</time></trkpt><trkpt lat="39.302745887146386" lon="8.927336391481184"><ele>15.333333333333332</ele><time>2026-04-28T08:11:59.813Z</time></trkpt><trkpt lat="39.302761813408466" lon="8.927615959671257"><ele>15.666666666666666</ele><time>2026-04-28T08:12:00.813Z</time></trkpt><trkpt lat="39.302773581414485" lon="8.927892264454927"><ele>16.0</ele><time>2026-04-28T08:12:01.813Z</time></trkpt><trkpt lat="39.30278957462743" lon="8.928173931120059"><ele>15.666666666666666</ele><time>2026-04-28T08:12:02.813Z</time></trkpt><trkpt lat="39.30280548812233" lon="8.928458437170327"><ele>15.333333333333332</ele><time>2026-04-28T08:12:03.812Z</time></trkpt><trkpt lat="39.30282007348729" lon="8.928743556593975"><ele>15.0</ele><time>2026-04-28T08:12:04.812Z</time></trkpt><trkpt lat="39.30282946800972" lon="8.929006616451055"><ele>14.0</ele><time>2026-04-28T08:12:05.813Z</time></trkpt><trkpt lat="39.30283572489046" lon="8.929251589161266"><ele>13.0</ele><time>2026-04-28T08:12:06.812Z</time></trkpt><trkpt lat="39.30284620710748" lon="8.929500632736023"><ele>12.0</ele><time>2026-04-28T08:12:07.812Z</time></trkpt><trkpt lat="39.30286380149169" lon="8.929757234683775"><ele>12.0</ele><time>2026-04-28T08:12:08.813Z</time></trkpt><trkpt lat="39.30287937053554" lon="8.9300171657761"><ele>12.0</ele><time>2026-04-28T08:12:09.812Z</time></trkpt><trkpt lat="39.30289744588431" lon="8.93028960574876"><ele>12.0</ele><time>2026-04-28T08:12:10.812Z</time></trkpt><trkpt lat="39.30291996567111" lon="8.930572045063"><ele>12.0</ele><time>2026-04-28T08:12:11.813Z</time></trkpt><trkpt lat="39.30294246498761" lon="8.930854174023427"><ele>12.0</ele><time>2026-04-28T08:12:12.813Z</time></trkpt><trkpt lat="39.30296370663705" lon="8.931148107374225"><ele>12.0</ele><time>2026-04-28T08:12:13.812Z</time></trkpt><trkpt lat="39.30298297528957" lon="8.931446587656412"><ele>10.5</ele><time>2026-04-28T08:12:14.813Z</time></trkpt><trkpt lat="39.30300205920887" lon="8.931743999881718"><ele>9.0</ele><time>2026-04-28T08:12:15.812Z</time></trkpt><trkpt lat="39.303019685698885" lon="8.932038939017945"><ele>9.0</ele><time>2026-04-28T08:12:16.812Z</time></trkpt><trkpt lat="39.30303710901855" lon="8.932334652484109"><ele>9.0</ele><time>2026-04-28T08:12:17.812Z</time></trkpt><trkpt lat="39.30305518190128" lon="8.932631083576533"><ele>9.333333333333334</ele><time>2026-04-28T08:12:18.812Z</time></trkpt><trkpt lat="39.30307271363006" lon="8.932925110244792"><ele>9.666666666666668</ele><time>2026-04-28T08:12:19.812Z</time></trkpt><trkpt lat="39.30308478231032" lon="8.933201615303044"><ele>10.0</ele><time>2026-04-28T08:12:20.812Z</time></trkpt><trkpt lat="39.303101282152255" lon="8.933470537987573"><ele>10.333333333333334</ele><time>2026-04-28T08:12:21.812Z</time></trkpt><trkpt lat="39.30312255431513" lon="8.933731276759877"><ele>10.666666666666666</ele><time>2026-04-28T08:12:22.812Z</time></trkpt><trkpt lat="39.30314500738021" lon="8.933982421939058"><ele>11.0</ele><time>2026-04-28T08:12:23.812Z</time></trkpt><trkpt lat="39.30317465276574" lon="8.934232586728172"><ele>11.0</ele><time>2026-04-28T08:12:24.812Z</time></trkpt><trkpt lat="39.303206766123665" lon="8.93448084958146"><ele>11.0</ele><time>2026-04-28T08:12:25.812Z</time></trkpt><trkpt lat="39.3032449781708" lon="8.934725970513826"><ele>11.0</ele><time>2026-04-28T08:12:26.812Z</time></trkpt><trkpt lat="39.3032842550422" lon="8.934965792369267"><ele>10.666666666666666</ele><time>2026-04-28T08:12:27.812Z</time></trkpt><trkpt lat="39.303334471785114" lon="8.935202728529394"><ele>10.333333333333334</ele><time>2026-04-28T08:12:28.812Z</time></trkpt><trkpt lat="39.30338623582279" lon="8.935442057434843"><ele>10.0</ele><time>2026-04-28T08:12:29.812Z</time></trkpt><trkpt lat="39.30342486670574" lon="8.935686177462799"><ele>10.0</ele><time>2026-04-28T08:12:30.812Z</time></trkpt><trkpt lat="39.30349314692494" lon="8.935920014206511"><ele>10.0</ele><time>2026-04-28T08:12:31.812Z</time></trkpt><trkpt lat="39.30353331478573" lon="8.936162293266118"><ele>10.0</ele><time>2026-04-28T08:12:32.812Z</time></trkpt><trkpt lat="39.30358697589826" lon="8.93639787963085"><ele>10.0</ele><time>2026-04-28T08:12:33.812Z</time></trkpt><trkpt lat="39.30364098300744" lon="8.936632204946813"><ele>10.0</ele><time>2026-04-28T08:12:34.812Z</time></trkpt><trkpt lat="39.303696186701714" lon="8.93687121591277"><ele>10.0</ele><time>2026-04-28T08:12:35.812Z</time></trkpt><trkpt lat="39.30374922786128" lon="8.93710086405442"><ele>9.666666666666668</ele><time>2026-04-28T08:12:36.812Z</time></trkpt><trkpt lat="39.303797556139656" lon="8.937315383796486"><ele>9.333333333333334</ele><time>2026-04-28T08:12:37.812Z</time></trkpt><trkpt lat="39.30383849581344" lon="8.937536183955146"><ele>9.0</ele><time>2026-04-28T08:12:38.812Z</time></trkpt><trkpt lat="39.30387617643691" lon="8.937740348448498"><ele>8.5</ele><time>2026-04-28T08:12:39.812Z</time></trkpt><trkpt lat="39.30388989328874" lon="8.937902746972146"><ele>8.0</ele><time>2026-04-28T08:12:40.812Z</time></trkpt><trkpt lat="39.30390706741836" lon="8.938051684268702"><ele>7.5</ele><time>2026-04-28T08:12:41.812Z</time></trkpt><trkpt lat="39.303939385354795" lon="8.938184157517574"><ele>7.0</ele><time>2026-04-28T08:12:42.812Z</time></trkpt><trkpt lat="39.30397360186584" lon="8.93833169867914"><ele>7.25</ele><time>2026-04-28T08:12:43.812Z</time></trkpt><trkpt lat="39.30401081717835" lon="8.938492170512225"><ele>7.5</ele><time>2026-04-28T08:12:44.812Z</time></trkpt><trkpt lat="39.30403326295521" lon="8.938660004021646"><ele>7.75</ele><time>2026-04-28T08:12:45.812Z</time></trkpt><trkpt lat="39.30413773265095" lon="8.938776647553693"><ele>8.0</ele><time>2026-04-28T08:12:46.812Z</time></trkpt><trkpt lat="39.304176304898995" lon="8.93894234765659"><ele>8.0</ele><time>2026-04-28T08:12:47.812Z</time></trkpt><trkpt lat="39.304216029976665" lon="8.93911300020412"><ele>8.0</ele><time>2026-04-28T08:12:48.812Z</time></trkpt><trkpt lat="39.3042569667493" lon="8.939290190757191"><ele>8.0</ele><time>2026-04-28T08:12:49.812Z</time></trkpt><trkpt lat="39.304293749360376" lon="8.93944997349955"><ele>8.0</ele><time>2026-04-28T08:12:50.812Z</time></trkpt><trkpt lat="39.304330819752025" lon="8.939611006387967"><ele>8.0</ele><time>2026-04-28T08:12:51.812Z</time></trkpt><trkpt lat="39.30436603002151" lon="8.939763961949373"><ele>8.0</ele><time>2026-04-28T08:12:52.812Z</time></trkpt><trkpt lat="39.304371287719164" lon="8.93992724834664"><ele>8.0</ele><time>2026-04-28T08:12:53.812Z</time></trkpt><trkpt lat="39.304410961923814" lon="8.940086905662827"><ele>8.0</ele><time>2026-04-28T08:12:54.812Z</time></trkpt><trkpt lat="39.304455586468485" lon="8.940261712453253"><ele>9.0</ele><time>2026-04-28T08:12:55.812Z</time></trkpt><trkpt lat="39.30450156183381" lon="8.940453183526728"><ele>10.0</ele><time>2026-04-28T08:12:56.812Z</time></trkpt><trkpt lat="39.304544650462354" lon="8.94065286069785"><ele>11.0</ele><time>2026-04-28T08:12:57.812Z</time></trkpt><trkpt lat="39.30459182900812" lon="8.940864561574609"><ele>10.0</ele><time>2026-04-28T08:12:58.812Z</time></trkpt><trkpt lat="39.30464019140865" lon="8.941088875725837"><ele>9.0</ele><time>2026-04-28T08:12:59.812Z</time></trkpt><trkpt lat="39.304690034691085" lon="8.941321585894658"><ele>8.0</ele><time>2026-04-28T08:13:00.812Z</time></trkpt><trkpt lat="39.30474070340216" lon="8.941555961916965"><ele>7.333333333333333</ele><time>2026-04-28T08:13:01.812Z</time></trkpt><trkpt lat="39.30479401808745" lon="8.9417744914734"><ele>6.666666666666666</ele><time>2026-04-28T08:13:02.812Z</time></trkpt><trkpt lat="39.30484698784224" lon="8.941980074476893"><ele>6.0</ele><time>2026-04-28T08:13:03.812Z</time></trkpt><trkpt lat="39.30489357275461" lon="8.942177553713506"><ele>6.0</ele><time>2026-04-28T08:13:04.812Z</time></trkpt><trkpt lat="39.30493232410176" lon="8.942357189148327"><ele>6.0</ele><time>2026-04-28T08:13:05.812Z</time></trkpt><trkpt lat="39.30497032916835" lon="8.94251788409531"><ele>6.0</ele><time>2026-04-28T08:13:06.812Z</time></trkpt><trkpt lat="39.30500602338184" lon="8.942653647073689"><ele>6.0</ele><time>2026-04-28T08:13:07.812Z</time></trkpt><trkpt lat="39.30504146505394" lon="8.942773217332952"><ele>6.0</ele><time>2026-04-28T08:13:08.812Z</time></trkpt><trkpt lat="39.30508314548717" lon="8.942872669332656"><ele>6.0</ele><time>2026-04-28T08:13:09.812Z</time></trkpt><trkpt lat="39.305100502664395" lon="8.942996626945904"><ele>6.0</ele><time>2026-04-28T08:13:11.812Z</time></trkpt><trkpt lat="39.30526098707004" lon="8.942983180006513"><ele>6.0</ele><time>2026-04-28T08:13:13.812Z</time></trkpt><trkpt lat="39.30533484785421" lon="8.94295833877065"><ele>6.0</ele><time>2026-04-28T08:13:14.812Z</time></trkpt><trkpt lat="39.30542155404109" lon="8.942921762678274"><ele>6.0</ele><time>2026-04-28T08:13:15.812Z</time></trkpt><trkpt lat="39.30552426538695" lon="8.942883577442204"><ele>6.0</ele><time>2026-04-28T08:13:16.812Z</time></trkpt><trkpt lat="39.305639843258355" lon="8.942876033377331"><ele>6.0</ele><time>2026-04-28T08:13:17.812Z</time></trkpt><trkpt lat="39.30575702274627" lon="8.942852278314291"><ele>6.0</ele><time>2026-04-28T08:13:18.812Z</time></trkpt><trkpt lat="39.305867505622096" lon="8.942814764376326"><ele>6.4</ele><time>2026-04-28T08:13:19.812Z</time></trkpt><trkpt lat="39.305974993970096" lon="8.94281463618078"><ele>6.8</ele><time>2026-04-28T08:13:20.812Z</time></trkpt><trkpt lat="39.306072967821315" lon="8.94283414119522"><ele>7.200000000000001</ele><time>2026-04-28T08:13:21.812Z</time></trkpt><trkpt lat="39.306173706056256" lon="8.942877229393916"><ele>7.6000000000000005</ele><time>2026-04-28T08:13:22.812Z</time></trkpt><trkpt lat="39.30627155195598" lon="8.94294305469571"><ele>8.0</ele><time>2026-04-28T08:13:23.812Z</time></trkpt><trkpt lat="39.30634634712986" lon="8.943038808049478"><ele>8.0</ele><time>2026-04-28T08:13:24.812Z</time></trkpt><trkpt lat="39.306403985115736" lon="8.943168352977905"><ele>8.0</ele><time>2026-04-28T08:13:25.812Z</time></trkpt><trkpt lat="39.30642666846708" lon="8.943338229137165"><ele>8.0</ele><time>2026-04-28T08:13:26.812Z</time></trkpt><trkpt lat="39.306455577272416" lon="8.943530896503177"><ele>8.0</ele><time>2026-04-28T08:13:27.812Z</time></trkpt><trkpt lat="39.306507235813115" lon="8.943732023453173"><ele>8.0</ele><time>2026-04-28T08:13:28.812Z</time></trkpt><trkpt lat="39.306501560170155" lon="8.94396752295892"><ele>8.0</ele><time>2026-04-28T08:13:29.812Z</time></trkpt><trkpt lat="39.30642432466023" lon="8.943874577189485"><ele>8.0</ele><time>2026-04-28T08:13:30.812Z</time></trkpt><trkpt lat="39.3064209997158" lon="8.944058727280753"><ele>8.0</ele><time>2026-04-28T08:13:31.812Z</time></trkpt><trkpt lat="39.306416930470384" lon="8.944254048284648"><ele>7.666666666666666</ele><time>2026-04-28T08:13:32.812Z</time></trkpt><trkpt lat="39.3064117269293" lon="8.944460129492189"><ele>7.333333333333334</ele><time>2026-04-28T08:13:33.812Z</time></trkpt><trkpt lat="39.3064062585749" lon="8.944672942787774"><ele>7.0</ele><time>2026-04-28T08:13:34.812Z</time></trkpt><trkpt lat="39.30640006003806" lon="8.944880178190639"><ele>7.666666666666667</ele><time>2026-04-28T08:13:35.812Z</time></trkpt><trkpt lat="39.30639585811911" lon="8.945086432037296"><ele>8.333333333333334</ele><time>2026-04-28T08:13:36.812Z</time></trkpt><trkpt lat="39.30639174285684" lon="8.945291822464712"><ele>9.0</ele><time>2026-04-28T08:13:37.812Z</time></trkpt><trkpt lat="39.306389851749046" lon="8.945499542447653"><ele>9.0</ele><time>2026-04-28T08:13:38.812Z</time></trkpt><trkpt lat="39.306390251479705" lon="8.945708831526183"><ele>9.0</ele><time>2026-04-28T08:13:39.812Z</time></trkpt><trkpt lat="39.30638575101814" lon="8.945917540516328"><ele>9.0</ele><time>2026-04-28T08:13:40.812Z</time></trkpt><trkpt lat="39.30638307816141" lon="8.946129361283116"><ele>8.333333333333334</ele><time>2026-04-28T08:13:41.812Z</time></trkpt><trkpt lat="39.306379272851004" lon="8.946340631941894"><ele>7.666666666666667</ele><time>2026-04-28T08:13:42.812Z</time></trkpt><trkpt lat="39.30637360923417" lon="8.94655071980865"><ele>7.0</ele><time>2026-04-28T08:13:43.812Z</time></trkpt><trkpt lat="39.30637091058394" lon="8.946763546275301"><ele>7.0</ele><time>2026-04-28T08:13:44.812Z</time></trkpt><trkpt lat="39.306369788039596" lon="8.946970863701038"><ele>7.0</ele><time>2026-04-28T08:13:45.812Z</time></trkpt><trkpt lat="39.306369747205785" lon="8.947178877831607"><ele>7.0</ele><time>2026-04-28T08:13:46.812Z</time></trkpt><trkpt lat="39.30637463196727" lon="8.947386578161655"><ele>7.0</ele><time>2026-04-28T08:13:47.812Z</time></trkpt><trkpt lat="39.306378805854095" lon="8.947591592412495"><ele>7.0</ele><time>2026-04-28T08:13:48.812Z</time></trkpt><trkpt lat="39.306390385251014" lon="8.94779597774341"><ele>7.0</ele><time>2026-04-28T08:13:49.812Z</time></trkpt><trkpt lat="39.30639916250313" lon="8.947999320393496"><ele>6.666666666666667</ele><time>2026-04-28T08:13:50.812Z</time></trkpt><trkpt lat="39.30641165740847" lon="8.948201122189564"><ele>6.333333333333334</ele><time>2026-04-28T08:13:51.812Z</time></trkpt><trkpt lat="39.30642647847038" lon="8.948398729446714"><ele>6.0</ele><time>2026-04-28T08:13:52.812Z</time></trkpt><trkpt lat="39.30645042480826" lon="8.948590845970218"><ele>5.666666666666667</ele><time>2026-04-28T08:13:53.812Z</time></trkpt><trkpt lat="39.306470222667436" lon="8.948788617240751"><ele>5.333333333333334</ele><time>2026-04-28T08:13:54.812Z</time></trkpt><trkpt lat="39.30649124800614" lon="8.948985720711892"><ele>5.0</ele><time>2026-04-28T08:13:55.812Z</time></trkpt><trkpt lat="39.30651447202961" lon="8.949176380274974"><ele>5.0</ele><time>2026-04-28T08:13:56.812Z</time></trkpt><trkpt lat="39.30654171122788" lon="8.949362848309978"><ele>5.0</ele><time>2026-04-28T08:13:57.812Z</time></trkpt><trkpt lat="39.30656917241659" lon="8.94955586255677"><ele>5.0</ele><time>2026-04-28T08:13:58.812Z</time></trkpt><trkpt lat="39.30660206035807" lon="8.949749462110002"><ele>5.0</ele><time>2026-04-28T08:13:59.812Z</time></trkpt><trkpt lat="39.306635064249676" lon="8.94994024479897"><ele>5.0</ele><time>2026-04-28T08:14:00.812Z</time></trkpt><trkpt lat="39.30667075457052" lon="8.950142089296389"><ele>5.0</ele><time>2026-04-28T08:14:01.812Z</time></trkpt><trkpt lat="39.306707421527534" lon="8.950348849947757"><ele>5.333333333333334</ele><time>2026-04-28T08:14:02.812Z</time></trkpt><trkpt lat="39.30674712902337" lon="8.950560466755523"><ele>5.666666666666667</ele><time>2026-04-28T08:14:03.812Z</time></trkpt><trkpt lat="39.306793327488286" lon="8.950765580092165"><ele>6.0</ele><time>2026-04-28T08:14:04.812Z</time></trkpt><trkpt lat="39.30683826056986" lon="8.950973162962185"><ele>6.0</ele><time>2026-04-28T08:14:05.812Z</time></trkpt><trkpt lat="39.30688433067781" lon="8.951187454644193"><ele>6.0</ele><time>2026-04-28T08:14:06.812Z</time></trkpt><trkpt lat="39.30693689536337" lon="8.951401526374317"><ele>6.0</ele><time>2026-04-28T08:14:07.812Z</time></trkpt><trkpt lat="39.30698510971542" lon="8.95160732867997"><ele>6.0</ele><time>2026-04-28T08:14:08.811Z</time></trkpt><trkpt lat="39.307032342409386" lon="8.951815696076341"><ele>6.0</ele><time>2026-04-28T08:14:09.811Z</time></trkpt><trkpt lat="39.307082157435126" lon="8.952022395634648"><ele>6.0</ele><time>2026-04-28T08:14:10.811Z</time></trkpt><trkpt lat="39.307131629651174" lon="8.95222952800425"><ele>6.0</ele><time>2026-04-28T08:14:11.811Z</time></trkpt><trkpt lat="39.30717894418628" lon="8.95244153763525"><ele>6.0</ele><time>2026-04-28T08:14:12.811Z</time></trkpt><trkpt lat="39.30722669318247" lon="8.952646769415873"><ele>6.0</ele><time>2026-04-28T08:14:13.811Z</time></trkpt><trkpt lat="39.307273404341636" lon="8.952850524690898"><ele>6.333333333333334</ele><time>2026-04-28T08:14:14.811Z</time></trkpt><trkpt lat="39.30731924106817" lon="8.953056810381256"><ele>6.666666666666667</ele><time>2026-04-28T08:14:15.811Z</time></trkpt><trkpt lat="39.3073671744556" lon="8.95326575145047"><ele>7.0</ele><time>2026-04-28T08:14:16.811Z</time></trkpt><trkpt lat="39.3074143593639" lon="8.953472040799431"><ele>7.666666666666667</ele><time>2026-04-28T08:14:17.811Z</time></trkpt><trkpt lat="39.307462272658796" lon="8.953673855626807"><ele>8.333333333333334</ele><time>2026-04-28T08:14:18.81Z</time></trkpt><trkpt lat="39.30751314044169" lon="8.953872863571169"><ele>9.0</ele><time>2026-04-28T08:14:19.81Z</time></trkpt><trkpt lat="39.30756960953697" lon="8.95407173637193"><ele>8.333333333333334</ele><time>2026-04-28T08:14:20.811Z</time></trkpt><trkpt lat="39.30763009913722" lon="8.954271074673718"><ele>7.666666666666667</ele><time>2026-04-28T08:14:21.811Z</time></trkpt><trkpt lat="39.307700788588" lon="8.95446939618404"><ele>7.0</ele><time>2026-04-28T08:14:22.811Z</time></trkpt><trkpt lat="39.30777345977091" lon="8.954665202698896"><ele>7.0</ele><time>2026-04-28T08:14:23.811Z</time></trkpt><trkpt lat="39.3078581722174" lon="8.95485585601629"><ele>7.0</ele><time>2026-04-28T08:14:24.811Z</time></trkpt><trkpt lat="39.307950536023625" lon="8.95503784532121"><ele>7.0</ele><time>2026-04-28T08:14:25.811Z</time></trkpt><trkpt lat="39.30805378649642" lon="8.955213346272952"><ele>8.0</ele><time>2026-04-28T08:14:26.811Z</time></trkpt><trkpt lat="39.308161351261575" lon="8.955384765187315"><ele>9.0</ele><time>2026-04-28T08:14:27.811Z</time></trkpt><trkpt lat="39.308271583427405" lon="8.955552608103547"><ele>10.0</ele><time>2026-04-28T08:14:28.811Z</time></trkpt><trkpt lat="39.30838443700635" lon="8.955728281997812"><ele>9.666666666666668</ele><time>2026-04-28T08:14:29.811Z</time></trkpt><trkpt lat="39.30850486627737" lon="8.95589212395589"><ele>9.333333333333334</ele><time>2026-04-28T08:14:30.811Z</time></trkpt><trkpt lat="39.308625703985946" lon="8.956055592506491"><ele>9.0</ele><time>2026-04-28T08:14:31.811Z</time></trkpt><trkpt lat="39.30874808495251" lon="8.95621609485059"><ele>9.0</ele><time>2026-04-28T08:14:32.811Z</time></trkpt><trkpt lat="39.30886035512509" lon="8.956371666686701"><ele>9.0</ele><time>2026-04-28T08:14:33.811Z</time></trkpt><trkpt lat="39.308964823221054" lon="8.956511284857191"><ele>9.0</ele><time>2026-04-28T08:14:34.811Z</time></trkpt><trkpt lat="39.30905554247043" lon="8.956632796310373"><ele>9.0</ele><time>2026-04-28T08:14:35.811Z</time></trkpt><trkpt lat="39.30913370978035" lon="8.95674732615738"><ele>9.0</ele><time>2026-04-28T08:14:36.811Z</time></trkpt><trkpt lat="39.30920458758199" lon="8.95684561939082"><ele>9.0</ele><time>2026-04-28T08:14:37.811Z</time></trkpt><trkpt lat="39.30927098635803" lon="8.95694650794984"><ele>9.0</ele><time>2026-04-28T08:14:38.811Z</time></trkpt><trkpt lat="39.30933761988174" lon="8.957035862803544"><ele>9.0</ele><time>2026-04-28T08:14:39.811Z</time></trkpt><trkpt lat="39.309400271940774" lon="8.957130130696584"><ele>9.0</ele><time>2026-04-28T08:14:40.811Z</time></trkpt><trkpt lat="39.30946358906689" lon="8.957226180658031"><ele>9.0</ele><time>2026-04-28T08:14:41.811Z</time></trkpt><trkpt lat="39.30952305959675" lon="8.9573224946794"><ele>9.0</ele><time>2026-04-28T08:14:42.811Z</time></trkpt><trkpt lat="39.3095809712895" lon="8.957406269121572"><ele>9.0</ele><time>2026-04-28T08:14:43.811Z</time></trkpt><trkpt lat="39.30963454520936" lon="8.957485712177313"><ele>9.0</ele><time>2026-04-28T08:14:44.811Z</time></trkpt><trkpt lat="39.309687123707036" lon="8.957558332387524"><ele>9.0</ele><time>2026-04-28T08:14:45.811Z</time></trkpt><trkpt lat="39.309734510197686" lon="8.957627598585475"><ele>9.0</ele><time>2026-04-28T08:14:46.811Z</time></trkpt><trkpt lat="39.309779086907135" lon="8.957689424219026"><ele>9.4</ele><time>2026-04-28T08:14:47.811Z</time></trkpt><trkpt lat="39.309833516304856" lon="8.957754452220845"><ele>9.8</ele><time>2026-04-28T08:14:48.811Z</time></trkpt><trkpt lat="39.30988964557128" lon="8.957834278346436"><ele>10.200000000000001</ele><time>2026-04-28T08:14:49.811Z</time></trkpt><trkpt lat="39.30995903547577" lon="8.957929157207433"><ele>10.600000000000001</ele><time>2026-04-28T08:14:50.811Z</time></trkpt><trkpt lat="39.31002881322655" lon="8.95803097614203"><ele>11.0</ele><time>2026-04-28T08:14:51.811Z</time></trkpt><trkpt lat="39.31010258762023" lon="8.95813602262763"><ele>11.0</ele><time>2026-04-28T08:14:52.811Z</time></trkpt><trkpt lat="39.3101778723541" lon="8.958242670365445"><ele>11.0</ele><time>2026-04-28T08:14:53.811Z</time></trkpt><trkpt lat="39.31025753757126" lon="8.958353622234853"><ele>11.0</ele><time>2026-04-28T08:14:54.811Z</time></trkpt><trkpt lat="39.31034330851049" lon="8.958464299778608"><ele>11.0</ele><time>2026-04-28T08:14:55.811Z</time></trkpt><trkpt lat="39.31041802856201" lon="8.958570550906119"><ele>11.25</ele><time>2026-04-28T08:14:56.811Z</time></trkpt><trkpt lat="39.310499807054875" lon="8.958683478771887"><ele>11.5</ele><time>2026-04-28T08:14:57.811Z</time></trkpt><trkpt lat="39.310582234897616" lon="8.958803156152133"><ele>11.75</ele><time>2026-04-28T08:14:58.811Z</time></trkpt><trkpt lat="39.310667816215336" lon="8.9589212501835"><ele>12.0</ele><time>2026-04-28T08:14:59.811Z</time></trkpt><trkpt lat="39.310751679369325" lon="8.959031288467015"><ele>11.4</ele><time>2026-04-28T08:15:00.81Z</time></trkpt><trkpt lat="39.310820332365275" lon="8.959132437435013"><ele>10.799999999999999</ele><time>2026-04-28T08:15:01.81Z</time></trkpt><trkpt lat="39.31086945892151" lon="8.959218799301196"><ele>10.2</ele><time>2026-04-28T08:15:02.81Z</time></trkpt><trkpt lat="39.31090251200163" lon="8.959301033933594"><ele>9.6</ele><time>2026-04-28T08:15:03.81Z</time></trkpt><trkpt lat="39.31096334648756" lon="8.959407217605925"><ele>9.0</ele><time>2026-04-28T08:15:05.81Z</time></trkpt><trkpt lat="39.31083937351969" lon="8.959565188600969"><ele>9.2</ele><time>2026-04-28T08:15:06.81Z</time></trkpt><trkpt lat="39.31078010558233" lon="8.959665985809002"><ele>9.4</ele><time>2026-04-28T08:15:07.81Z</time></trkpt><trkpt lat="39.310709152959426" lon="8.95976052389603"><ele>9.6</ele><time>2026-04-28T08:15:08.81Z</time></trkpt><trkpt lat="39.31063336465741" lon="8.959863400273807"><ele>9.8</ele><time>2026-04-28T08:15:09.81Z</time></trkpt><trkpt lat="39.31056636517231" lon="8.959973923052411"><ele>10.0</ele><time>2026-04-28T08:15:10.81Z</time></trkpt><trkpt lat="39.310475833040684" lon="8.960077345453884"><ele>10.0</ele><time>2026-04-28T08:15:11.81Z</time></trkpt><trkpt lat="39.31037985285979" lon="8.960172846922214"><ele>10.0</ele><time>2026-04-28T08:15:12.81Z</time></trkpt><trkpt lat="39.31028592036093" lon="8.960255709130033"><ele>10.0</ele><time>2026-04-28T08:15:13.81Z</time></trkpt><trkpt lat="39.31019012719647" lon="8.960337925766733"><ele>10.0</ele><time>2026-04-28T08:15:14.81Z</time></trkpt><trkpt lat="39.31008896070924" lon="8.960408712529073"><ele>10.0</ele><time>2026-04-28T08:15:15.81Z</time></trkpt><trkpt lat="39.309981614279145" lon="8.960480615847942"><ele>10.0</ele><time>2026-04-28T08:15:16.81Z</time></trkpt><trkpt lat="39.30986816094818" lon="8.960542598184842"><ele>10.0</ele><time>2026-04-28T08:15:17.81Z</time></trkpt><trkpt lat="39.309755032777105" lon="8.960604962768665"><ele>10.0</ele><time>2026-04-28T08:15:18.81Z</time></trkpt><trkpt lat="39.309642568465186" lon="8.960655197966577"><ele>9.666666666666668</ele><time>2026-04-28T08:15:19.81Z</time></trkpt><trkpt lat="39.30954207134421" lon="8.96069932664846"><ele>9.333333333333334</ele><time>2026-04-28T08:15:20.81Z</time></trkpt><trkpt lat="39.309461390930956" lon="8.960739959588752"><ele>9.0</ele><time>2026-04-28T08:15:21.81Z</time></trkpt><trkpt lat="39.30939623233397" lon="8.960759255222"><ele>8.666666666666666</ele><time>2026-04-28T08:15:22.81Z</time></trkpt><trkpt lat="39.309328587874724" lon="8.960697989163876"><ele>8.333333333333332</ele><time>2026-04-28T08:15:24.81Z</time></trkpt><trkpt lat="39.30931596897912" lon="8.96059609146562"><ele>8.0</ele><time>2026-04-28T08:15:26.81Z</time></trkpt><trkpt lat="39.30922954489881" lon="8.960592034398008"><ele>8.0</ele><time>2026-04-28T08:15:27.81Z</time></trkpt><trkpt lat="39.309372303091386" lon="8.960506568057738"><ele>8.0</ele><time>2026-04-28T08:15:28.81Z</time></trkpt><trkpt lat="39.309442695169686" lon="8.960461884447085"><ele>8.0</ele><time>2026-04-28T08:15:30.81Z</time></trkpt><trkpt lat="39.30948881922614" lon="8.960390522929636"><ele>8.0</ele><time>2026-04-28T08:15:35.81Z</time></trkpt><trkpt lat="39.30937498310915" lon="8.96043669907001"><ele>8.0</ele><time>2026-04-28T08:15:39.81Z</time></trkpt><trkpt lat="39.30930390786553" lon="8.960531514240538"><ele>7.999999999999999</ele><time>2026-04-28T08:15:41.81Z</time></trkpt><trkpt lat="39.309268546011914" lon="8.960607499109134"><ele>8.0</ele><time>2026-04-28T08:15:43.81Z</time></trkpt><trkpt lat="39.30919749578943" lon="8.96061008802384"><ele>8.0</ele><time>2026-04-28T08:15:45.81Z</time></trkpt><trkpt lat="39.30914371001709" lon="8.960552982707226"><ele>8.0</ele><time>2026-04-28T08:15:47.81Z</time></trkpt><trkpt lat="39.30910920625822" lon="8.960410705581596"><ele>7.999999999999999</ele><time>2026-04-28T08:15:49.81Z</time></trkpt><trkpt lat="39.30909240735151" lon="8.96032410943192"><ele>8.0</ele><time>2026-04-28T08:15:50.81Z</time></trkpt><trkpt lat="39.30907381970992" lon="8.960227538128944"><ele>7.999999999999999</ele><time>2026-04-28T08:15:51.81Z</time></trkpt><trkpt lat="39.309053307973365" lon="8.960126799398772"><ele>8.0</ele><time>2026-04-28T08:15:52.81Z</time></trkpt><trkpt lat="39.30902740147851" lon="8.960031646849362"><ele>8.0</ele><time>2026-04-28T08:15:53.81Z</time></trkpt><trkpt lat="39.30900280549064" lon="8.959935571938319"><ele>8.0</ele><time>2026-04-28T08:15:54.81Z</time></trkpt><trkpt lat="39.308985251885154" lon="8.959848650212605"><ele>7.999999999999999</ele><time>2026-04-28T08:15:55.81Z</time></trkpt><trkpt lat="39.30896491337698" lon="8.959765023923069"><ele>8.0</ele><time>2026-04-28T08:15:56.81Z</time></trkpt><trkpt lat="39.308941224086226" lon="8.959667635387703"><ele>7.999999999999999</ele><time>2026-04-28T08:15:57.81Z</time></trkpt><trkpt lat="39.3089192796287" lon="8.9595813760402"><ele>8.0</ele><time>2026-04-28T08:15:58.81Z</time></trkpt><trkpt lat="39.30889919759037" lon="8.959433165171587"><ele>8.0</ele><time>2026-04-28T08:16:00.81Z</time></trkpt><trkpt lat="39.308879769657864" lon="8.9593495804163"><ele>8.0</ele><time>2026-04-28T08:16:01.81Z</time></trkpt><trkpt lat="39.3088509930515" lon="8.959262465442068"><ele>7.999999999999999</ele><time>2026-04-28T08:16:02.81Z</time></trkpt><trkpt lat="39.30883328134349" lon="8.959183332557663"><ele>8.0</ele><time>2026-04-28T08:16:03.81Z</time></trkpt><trkpt lat="39.308810727360246" lon="8.959102556042545"><ele>8.142857142857142</ele><time>2026-04-28T08:16:04.81Z</time></trkpt><trkpt lat="39.30879734096871" lon="8.959019701696707"><ele>8.285714285714285</ele><time>2026-04-28T08:16:05.81Z</time></trkpt><trkpt lat="39.308773264197875" lon="8.958934433830743"><ele>8.428571428571429</ele><time>2026-04-28T08:16:06.81Z</time></trkpt><trkpt lat="39.30876575432686" lon="8.958832379750515"><ele>8.571428571428571</ele><time>2026-04-28T08:16:07.81Z</time></trkpt><trkpt lat="39.30874390410392" lon="8.958736973109847"><ele>8.714285714285715</ele><time>2026-04-28T08:16:08.81Z</time></trkpt><trkpt lat="39.30871112776574" lon="8.958656632707394"><ele>8.857142857142858</ele><time>2026-04-28T08:16:09.81Z</time></trkpt><trkpt lat="39.308703658471636" lon="8.9585731643319"><ele>9.0</ele><time>2026-04-28T08:16:10.81Z</time></trkpt><trkpt lat="39.308765407542005" lon="8.958459557254928"><ele>9.0</ele><time>2026-04-28T08:16:12.81Z</time></trkpt><trkpt lat="39.30882008543713" lon="8.958416341825352"><ele>9.0</ele><time>2026-04-28T08:16:13.81Z</time></trkpt><trkpt lat="39.308880317725155" lon="8.958385659110748"><ele>9.0</ele><time>2026-04-28T08:16:14.809Z</time></trkpt><trkpt lat="39.308953662430305" lon="8.958352228249861"><ele>9.0</ele><time>2026-04-28T08:16:15.809Z</time></trkpt><trkpt lat="39.30903364405227" lon="8.958299515295371"><ele>9.0</ele><time>2026-04-28T08:16:16.809Z</time></trkpt><trkpt lat="39.309120723301454" lon="8.958264385486752"><ele>9.0</ele><time>2026-04-28T08:16:17.809Z</time></trkpt><trkpt lat="39.30921511591796" lon="8.958255794095603"><ele>9.166666666666666</ele><time>2026-04-28T08:16:18.809Z</time></trkpt><trkpt lat="39.309308894907936" lon="8.958212584839995"><ele>9.333333333333334</ele><time>2026-04-28T08:16:19.809Z</time></trkpt><trkpt lat="39.30939375854968" lon="8.958183304557343"><ele>9.5</ele><time>2026-04-28T08:16:20.809Z</time></trkpt><trkpt lat="39.309480179645085" lon="8.958149292484519"><ele>9.666666666666668</ele><time>2026-04-28T08:16:21.809Z</time></trkpt><trkpt lat="39.30956398792625" lon="8.958124501298403"><ele>9.833333333333334</ele><time>2026-04-28T08:16:22.809Z</time></trkpt><trkpt lat="39.30964092868851" lon="8.958115035352568"><ele>10.0</ele><time>2026-04-28T08:16:23.809Z</time></trkpt><trkpt lat="39.30971185276284" lon="8.958111118310867"><ele>10.166666666666668</ele><time>2026-04-28T08:16:24.808Z</time></trkpt><trkpt lat="39.30978176894405" lon="8.958105331165862"><ele>10.333333333333334</ele><time>2026-04-28T08:16:25.808Z</time></trkpt><trkpt lat="39.309856694803194" lon="8.958094147890675"><ele>10.5</ele><time>2026-04-28T08:16:26.808Z</time></trkpt><trkpt lat="39.30994214111968" lon="8.958085964435158"><ele>10.666666666666666</ele><time>2026-04-28T08:16:27.808Z</time></trkpt><trkpt lat="39.31003525718216" lon="8.958073619430236"><ele>10.833333333333332</ele><time>2026-04-28T08:16:28.808Z</time></trkpt><trkpt lat="39.3101316518521" lon="8.958058793554764"><ele>11.0</ele><time>2026-04-28T08:16:29.808Z</time></trkpt><trkpt lat="39.310231043324634" lon="8.958044429054208"><ele>11.0</ele><time>2026-04-28T08:16:30.808Z</time></trkpt><trkpt lat="39.3103378978588" lon="8.958061467438107"><ele>11.0</ele><time>2026-04-28T08:16:31.808Z</time></trkpt><trkpt lat="39.310450848311916" lon="8.95806601455358"><ele>11.0</ele><time>2026-04-28T08:16:32.808Z</time></trkpt><trkpt lat="39.31053801422863" lon="8.958103856981687"><ele>11.0</ele><time>2026-04-28T08:16:33.808Z</time></trkpt><trkpt lat="39.310651977411446" lon="8.958131860855561"><ele>11.0</ele><time>2026-04-28T08:16:34.808Z</time></trkpt><trkpt lat="39.3107615108396" lon="8.95815222797105"><ele>11.0</ele><time>2026-04-28T08:16:35.808Z</time></trkpt><trkpt lat="39.31088446883007" lon="8.958182498687668"><ele>11.0</ele><time>2026-04-28T08:16:36.808Z</time></trkpt><trkpt lat="39.311000554473914" lon="8.958204257816243"><ele>11.0</ele><time>2026-04-28T08:16:37.808Z</time></trkpt><trkpt lat="39.31111512802864" lon="8.958223802877702"><ele>11.0</ele><time>2026-04-28T08:16:38.808Z</time></trkpt><trkpt lat="39.311226384159426" lon="8.958251536565092"><ele>11.0</ele><time>2026-04-28T08:16:39.808Z</time></trkpt><trkpt lat="39.3113403741095" lon="8.958271281841272"><ele>11.0</ele><time>2026-04-28T08:16:40.808Z</time></trkpt><trkpt lat="39.311440752396265" lon="8.958296698155564"><ele>11.0</ele><time>2026-04-28T08:16:41.808Z</time></trkpt><trkpt lat="39.31154895197796" lon="8.958325023810492"><ele>11.0</ele><time>2026-04-28T08:16:42.808Z</time></trkpt><trkpt lat="39.3116664655454" lon="8.958360460037664"><ele>11.0</ele><time>2026-04-28T08:16:43.808Z</time></trkpt><trkpt lat="39.3117875630383" lon="8.958389444237904"><ele>10.5</ele><time>2026-04-28T08:16:44.808Z</time></trkpt><trkpt lat="39.31192238755077" lon="8.958419289932836"><ele>10.0</ele><time>2026-04-28T08:16:45.808Z</time></trkpt><trkpt lat="39.312061343027636" lon="8.958449114993565"><ele>9.5</ele><time>2026-04-28T08:16:46.808Z</time></trkpt><trkpt lat="39.31220513959817" lon="8.958477364568468"><ele>9.0</ele><time>2026-04-28T08:16:47.808Z</time></trkpt><trkpt lat="39.31234880877617" lon="8.958510961548587"><ele>8.666666666666666</ele><time>2026-04-28T08:16:48.808Z</time></trkpt><trkpt lat="39.31249432888546" lon="8.958545324367257"><ele>8.333333333333332</ele><time>2026-04-28T08:16:49.808Z</time></trkpt><trkpt lat="39.31264536775024" lon="8.958583308357824"><ele>8.0</ele><time>2026-04-28T08:16:50.808Z</time></trkpt><trkpt lat="39.31279858857512" lon="8.95861915810069"><ele>8.0</ele><time>2026-04-28T08:16:51.808Z</time></trkpt><trkpt lat="39.31295079328404" lon="8.95865825405444"><ele>8.0</ele><time>2026-04-28T08:16:52.808Z</time></trkpt><trkpt lat="39.31310148197131" lon="8.958697862893182"><ele>8.0</ele><time>2026-04-28T08:16:53.808Z</time></trkpt><trkpt lat="39.313250576850116" lon="8.958737223956852"><ele>8.333333333333332</ele><time>2026-04-28T08:16:54.808Z</time></trkpt><trkpt lat="39.31340167982523" lon="8.958776490755257"><ele>8.666666666666666</ele><time>2026-04-28T08:16:55.808Z</time></trkpt><trkpt lat="39.313558844207954" lon="8.958816397390256"><ele>9.0</ele><time>2026-04-28T08:16:56.808Z</time></trkpt><trkpt lat="39.31371517986441" lon="8.958871484908444"><ele>9.0</ele><time>2026-04-28T08:16:57.808Z</time></trkpt><trkpt lat="39.31387853395662" lon="8.958911549840607"><ele>9.0</ele><time>2026-04-28T08:16:58.808Z</time></trkpt><trkpt lat="39.31403755279279" lon="8.958955850744104"><ele>9.0</ele><time>2026-04-28T08:16:59.808Z</time></trkpt><trkpt lat="39.31419530766002" lon="8.959002147034933"><ele>8.666666666666666</ele><time>2026-04-28T08:17:00.808Z</time></trkpt><trkpt lat="39.31435737462854" lon="8.959050704350997"><ele>8.333333333333332</ele><time>2026-04-28T08:17:01.808Z</time></trkpt><trkpt lat="39.31452566279941" lon="8.959094429275543"><ele>8.0</ele><time>2026-04-28T08:17:02.808Z</time></trkpt><trkpt lat="39.31469955668307" lon="8.959137736439663"><ele>8.0</ele><time>2026-04-28T08:17:03.808Z</time></trkpt><trkpt lat="39.31488474766185" lon="8.959177124194754"><ele>8.0</ele><time>2026-04-28T08:17:04.808Z</time></trkpt><trkpt lat="39.31507759175056" lon="8.959200404013213"><ele>8.0</ele><time>2026-04-28T08:17:05.808Z</time></trkpt><trkpt lat="39.315261912101136" lon="8.95923464162481"><ele>8.0</ele><time>2026-04-28T08:17:06.808Z</time></trkpt><trkpt lat="39.3154438171307" lon="8.959265529775838"><ele>8.0</ele><time>2026-04-28T08:17:07.808Z</time></trkpt><trkpt lat="39.31562140587313" lon="8.959305690621985"><ele>8.0</ele><time>2026-04-28T08:17:08.808Z</time></trkpt><trkpt lat="39.31579619705562" lon="8.959347660146285"><ele>8.0</ele><time>2026-04-28T08:17:09.808Z</time></trkpt><trkpt lat="39.315973651984535" lon="8.959391978945218"><ele>8.0</ele><time>2026-04-28T08:17:10.808Z</time></trkpt><trkpt lat="39.3161466780965" lon="8.959426469256908"><ele>8.0</ele><time>2026-04-28T08:17:11.808Z</time></trkpt><trkpt lat="39.31632174081557" lon="8.959465135523782"><ele>9.0</ele><time>2026-04-28T08:17:12.808Z</time></trkpt><trkpt lat="39.3164997192556" lon="8.959502100168033"><ele>10.0</ele><time>2026-04-28T08:17:13.808Z</time></trkpt><trkpt lat="39.31667613577034" lon="8.959536906911975"><ele>11.0</ele><time>2026-04-28T08:17:14.808Z</time></trkpt><trkpt lat="39.316851028971705" lon="8.959575478529578"><ele>11.0</ele><time>2026-04-28T08:17:15.808Z</time></trkpt><trkpt lat="39.31702425274457" lon="8.959615263619042"><ele>11.0</ele><time>2026-04-28T08:17:16.808Z</time></trkpt><trkpt lat="39.31720101821346" lon="8.959654755919098"><ele>11.0</ele><time>2026-04-28T08:17:17.808Z</time></trkpt><trkpt lat="39.31737842049144" lon="8.959697401531018"><ele>11.333333333333332</ele><time>2026-04-28T08:17:18.808Z</time></trkpt><trkpt lat="39.317559291622004" lon="8.959735714169792"><ele>11.666666666666666</ele><time>2026-04-28T08:17:19.808Z</time></trkpt><trkpt lat="39.31773517332205" lon="8.959783048206459"><ele>12.0</ele><time>2026-04-28T08:17:20.808Z</time></trkpt><trkpt lat="39.31791531268298" lon="8.959824491042513"><ele>11.0</ele><time>2026-04-28T08:17:21.808Z</time></trkpt><trkpt lat="39.31809786725238" lon="8.959864172918635"><ele>10.0</ele><time>2026-04-28T08:17:22.808Z</time></trkpt><trkpt lat="39.31827799830333" lon="8.959904181981116"><ele>9.0</ele><time>2026-04-28T08:17:23.808Z</time></trkpt><trkpt lat="39.318459542838006" lon="8.959947646596143"><ele>9.0</ele><time>2026-04-28T08:17:24.808Z</time></trkpt><trkpt lat="39.318641702025396" lon="8.959989465124957"><ele>9.0</ele><time>2026-04-28T08:17:25.808Z</time></trkpt><trkpt lat="39.31882256999343" lon="8.960034864006875"><ele>9.0</ele><time>2026-04-28T08:17:26.808Z</time></trkpt><trkpt lat="39.31900605904684" lon="8.960076222505347"><ele>10.333333333333332</ele><time>2026-04-28T08:17:27.808Z</time></trkpt><trkpt lat="39.319190228578776" lon="8.960115621410628"><ele>11.666666666666666</ele><time>2026-04-28T08:17:28.808Z</time></trkpt><trkpt lat="39.31937258582726" lon="8.960161508773862"><ele>13.0</ele><time>2026-04-28T08:17:29.808Z</time></trkpt><trkpt lat="39.31955623342511" lon="8.960203771875245"><ele>13.0</ele><time>2026-04-28T08:17:30.808Z</time></trkpt><trkpt lat="39.31973720351428" lon="8.9602500098471"><ele>13.0</ele><time>2026-04-28T08:17:31.808Z</time></trkpt><trkpt lat="39.319920325687" lon="8.960296060666758"><ele>13.0</ele><time>2026-04-28T08:17:32.808Z</time></trkpt><trkpt lat="39.320105078640964" lon="8.960340326520692"><ele>13.0</ele><time>2026-04-28T08:17:33.808Z</time></trkpt><trkpt lat="39.320290434017046" lon="8.960388122755152"><ele>13.0</ele><time>2026-04-28T08:17:34.808Z</time></trkpt><trkpt lat="39.32047737590324" lon="8.960444802391802"><ele>13.0</ele><time>2026-04-28T08:17:35.808Z</time></trkpt><trkpt lat="39.32066095316045" lon="8.960501384377393"><ele>12.666666666666666</ele><time>2026-04-28T08:17:36.808Z</time></trkpt><trkpt lat="39.32084636030647" lon="8.960562860158975"><ele>12.333333333333332</ele><time>2026-04-28T08:17:37.808Z</time></trkpt><trkpt lat="39.32102966944269" lon="8.96062930761573"><ele>12.0</ele><time>2026-04-28T08:17:38.808Z</time></trkpt><trkpt lat="39.321216642931105" lon="8.960696992712569"><ele>11.666666666666666</ele><time>2026-04-28T08:17:39.808Z</time></trkpt><trkpt lat="39.321400290794195" lon="8.960764516082723"><ele>11.333333333333332</ele><time>2026-04-28T08:17:40.808Z</time></trkpt><trkpt lat="39.32157839570784" lon="8.960827927285496"><ele>11.0</ele><time>2026-04-28T08:17:41.808Z</time></trkpt><trkpt lat="39.321756545953015" lon="8.960893838185438"><ele>11.0</ele><time>2026-04-28T08:17:42.808Z</time></trkpt><trkpt lat="39.32193375466039" lon="8.960961411674205"><ele>11.0</ele><time>2026-04-28T08:17:43.808Z</time></trkpt><trkpt lat="39.32210843434694" lon="8.961029476065729"><ele>11.0</ele><time>2026-04-28T08:17:44.808Z</time></trkpt><trkpt lat="39.322286630557116" lon="8.961099322526348"><ele>11.333333333333332</ele><time>2026-04-28T08:17:45.808Z</time></trkpt><trkpt lat="39.322465168225996" lon="8.96117244599396"><ele>11.666666666666666</ele><time>2026-04-28T08:17:46.808Z</time></trkpt><trkpt lat="39.32264578730947" lon="8.961242879442604"><ele>12.0</ele><time>2026-04-28T08:17:47.808Z</time></trkpt><trkpt lat="39.322825517523555" lon="8.961307772513235"><ele>12.0</ele><time>2026-04-28T08:17:48.808Z</time></trkpt><trkpt lat="39.32300268726534" lon="8.961367120631042"><ele>12.0</ele><time>2026-04-28T08:17:49.808Z</time></trkpt><trkpt lat="39.32318159019159" lon="8.961430474525393"><ele>12.0</ele><time>2026-04-28T08:17:50.808Z</time></trkpt><trkpt lat="39.32335320864092" lon="8.961501515986642"><ele>12.0</ele><time>2026-04-28T08:17:51.81Z</time></trkpt><trkpt lat="39.32352238703256" lon="8.961570970926918"><ele>12.0</ele><time>2026-04-28T08:17:52.813Z</time></trkpt><trkpt lat="39.32368787033105" lon="8.961635528146909"><ele>12.0</ele><time>2026-04-28T08:17:53.815Z</time></trkpt><trkpt lat="39.32384997261333" lon="8.961677504406564"><ele>12.333333333333332</ele><time>2026-04-28T08:17:54.817Z</time></trkpt><trkpt lat="39.32401068399129" lon="8.961690848070353"><ele>12.666666666666666</ele><time>2026-04-28T08:17:55.819Z</time></trkpt><trkpt lat="39.324185384733404" lon="8.96168842663313"><ele>13.0</ele><time>2026-04-28T08:17:56.821Z</time></trkpt><trkpt lat="39.32436082057741" lon="8.961667287271124"><ele>13.0</ele><time>2026-04-28T08:17:57.823Z</time></trkpt><trkpt lat="39.32452869946942" lon="8.961629433163278"><ele>13.0</ele><time>2026-04-28T08:17:58.825Z</time></trkpt><trkpt lat="39.324697576796524" lon="8.961575120256795"><ele>13.0</ele><time>2026-04-28T08:17:59.826Z</time></trkpt><trkpt lat="39.324856786279675" lon="8.961503595718577"><ele>14.0</ele><time>2026-04-28T08:18:00.828Z</time></trkpt><trkpt lat="39.325011916013054" lon="8.961412259683536"><ele>15.0</ele><time>2026-04-28T08:18:01.829Z</time></trkpt><trkpt lat="39.32516296848915" lon="8.961305602945147"><ele>16.0</ele><time>2026-04-28T08:18:02.83Z</time></trkpt><trkpt lat="39.32531440784807" lon="8.96118326463707"><ele>16.0</ele><time>2026-04-28T08:18:03.832Z</time></trkpt><trkpt lat="39.32546455131155" lon="8.961051398640148"><ele>16.0</ele><time>2026-04-28T08:18:04.833Z</time></trkpt><trkpt lat="39.32561947940884" lon="8.960915330423687"><ele>16.0</ele><time>2026-04-28T08:18:05.834Z</time></trkpt><trkpt lat="39.32577826477589" lon="8.960772989663285"><ele>15.666666666666666</ele><time>2026-04-28T08:18:06.835Z</time></trkpt><trkpt lat="39.325938313483704" lon="8.960629756130638"><ele>15.333333333333332</ele><time>2026-04-28T08:18:07.836Z</time></trkpt><trkpt lat="39.326105379403835" lon="8.960478572874425"><ele>15.0</ele><time>2026-04-28T08:18:08.837Z</time></trkpt><trkpt lat="39.32627084206577" lon="8.96032764596493"><ele>14.666666666666668</ele><time>2026-04-28T08:18:09.838Z</time></trkpt><trkpt lat="39.326433946181226" lon="8.960183610686716"><ele>14.333333333333334</ele><time>2026-04-28T08:18:10.838Z</time></trkpt><trkpt lat="39.32659238638316" lon="8.960042033161791"><ele>14.0</ele><time>2026-04-28T08:18:11.839Z</time></trkpt><trkpt lat="39.326749545074556" lon="8.959900883395138"><ele>13.333333333333334</ele><time>2026-04-28T08:18:12.84Z</time></trkpt><trkpt lat="39.32691111138337" lon="8.959754916633617"><ele>12.666666666666668</ele><time>2026-04-28T08:18:13.841Z</time></trkpt><trkpt lat="39.32707073021972" lon="8.959617218064002"><ele>12.0</ele><time>2026-04-28T08:18:14.841Z</time></trkpt><trkpt lat="39.32722707929198" lon="8.959489034487056"><ele>12.333333333333332</ele><time>2026-04-28T08:18:15.842Z</time></trkpt><trkpt lat="39.32737711462826" lon="8.95936633790556"><ele>12.666666666666666</ele><time>2026-04-28T08:18:16.842Z</time></trkpt><trkpt lat="39.32752528447015" lon="8.959244127319556"><ele>13.0</ele><time>2026-04-28T08:18:17.843Z</time></trkpt><trkpt lat="39.32766878745919" lon="8.959130950103846"><ele>13.0</ele><time>2026-04-28T08:18:18.843Z</time></trkpt><trkpt lat="39.32780622291189" lon="8.959020277927204"><ele>13.0</ele><time>2026-04-28T08:18:19.844Z</time></trkpt><trkpt lat="39.3279316628348" lon="8.958916819752426"><ele>13.0</ele><time>2026-04-28T08:18:20.843Z</time></trkpt><trkpt lat="39.32804130054595" lon="8.958826142833082"><ele>13.0</ele><time>2026-04-28T08:18:21.844Z</time></trkpt><trkpt lat="39.32813531135282" lon="8.958750199989685"><ele>13.0</ele><time>2026-04-28T08:18:22.844Z</time></trkpt><trkpt lat="39.32821905929552" lon="8.958694266669431"><ele>13.0</ele><time>2026-04-28T08:18:23.844Z</time></trkpt><trkpt lat="39.32830966170882" lon="8.958659035395916"><ele>13.0</ele><time>2026-04-28T08:18:24.844Z</time></trkpt><trkpt lat="39.32841920693206" lon="8.95864446026225"><ele>13.0</ele><time>2026-04-28T08:18:25.844Z</time></trkpt><trkpt lat="39.328527797282106" lon="8.958657406301207"><ele>13.0</ele><time>2026-04-28T08:18:26.845Z</time></trkpt><trkpt lat="39.32865673702656" lon="8.958679451045263"><ele>13.0</ele><time>2026-04-28T08:18:27.845Z</time></trkpt><trkpt lat="39.32877617253171" lon="8.958814832440066"><ele>13.0</ele><time>2026-04-28T08:18:28.846Z</time></trkpt><trkpt lat="39.328893376353015" lon="8.958845136183724"><ele>13.0</ele><time>2026-04-28T08:18:29.846Z</time></trkpt><trkpt lat="39.328793255812336" lon="8.959073509516532"><ele>13.0</ele><time>2026-04-28T08:18:30.845Z</time></trkpt><trkpt lat="39.32886181033525" lon="8.959208400039241"><ele>13.0</ele><time>2026-04-28T08:18:31.846Z</time></trkpt><trkpt lat="39.32893024866017" lon="8.959350255148065"><ele>13.0</ele><time>2026-04-28T08:18:32.846Z</time></trkpt><trkpt lat="39.32899957891133" lon="8.959492176901188"><ele>13.0</ele><time>2026-04-28T08:18:33.847Z</time></trkpt><trkpt lat="39.32907544872732" lon="8.959630046525968"><ele>13.25</ele><time>2026-04-28T08:18:34.847Z</time></trkpt><trkpt lat="39.32916130283712" lon="8.959745891344301"><ele>13.5</ele><time>2026-04-28T08:18:35.847Z</time></trkpt><trkpt lat="39.329263007431" lon="8.959832342760013"><ele>13.75</ele><time>2026-04-28T08:18:36.847Z</time></trkpt><trkpt lat="39.3293555561294" lon="8.959897204577693"><ele>14.0</ele><time>2026-04-28T08:18:37.848Z</time></trkpt><trkpt lat="39.32944904618156" lon="8.959965277249681"><ele>14.0</ele><time>2026-04-28T08:18:38.848Z</time></trkpt><trkpt lat="39.32952914860531" lon="8.960028680395828"><ele>13.999999999999998</ele><time>2026-04-28T08:18:39.848Z</time></trkpt><trkpt lat="39.32961225014941" lon="8.960095637440624"><ele>13.999999999999998</ele><time>2026-04-28T08:18:40.848Z</time></trkpt><trkpt lat="39.329689435070854" lon="8.960157827310843"><ele>14.0</ele><time>2026-04-28T08:18:41.848Z</time></trkpt><trkpt lat="39.32976886757975" lon="8.96021503109893"><ele>14.0</ele><time>2026-04-28T08:18:43.848Z</time></trkpt><trkpt lat="39.32959956328257" lon="8.960412018529395"><ele>14.0</ele><time>2026-04-28T08:18:47.849Z</time></trkpt><trkpt lat="39.329528484933455" lon="8.960520725420418"><ele>14.0</ele><time>2026-04-28T08:18:48.849Z</time></trkpt><trkpt lat="39.32945392257031" lon="8.960629956461638"><ele>14.0</ele><time>2026-04-28T08:18:49.849Z</time></trkpt><trkpt lat="39.32937437147141" lon="8.960746394208094"><ele>14.0</ele><time>2026-04-28T08:18:50.849Z</time></trkpt><trkpt lat="39.329290625318684" lon="8.960868972206224"><ele>14.25</ele><time>2026-04-28T08:18:51.849Z</time></trkpt><trkpt lat="39.32920517231546" lon="8.960994511435699"><ele>14.5</ele><time>2026-04-28T08:18:52.849Z</time></trkpt><trkpt lat="39.32911632898317" lon="8.961125299952512"><ele>14.75</ele><time>2026-04-28T08:18:53.849Z</time></trkpt><trkpt lat="39.329026186364835" lon="8.961258913628571"><ele>15.0</ele><time>2026-04-28T08:18:54.849Z</time></trkpt><trkpt lat="39.32893344257491" lon="8.961406827721504"><ele>15.0</ele><time>2026-04-28T08:18:55.849Z</time></trkpt><trkpt lat="39.32884053106565" lon="8.961563935777134"><ele>15.0</ele><time>2026-04-28T08:18:56.849Z</time></trkpt><trkpt lat="39.328750164250295" lon="8.96173541439992"><ele>15.0</ele><time>2026-04-28T08:18:57.849Z</time></trkpt><trkpt lat="39.328667235770574" lon="8.961907383940986"><ele>15.0</ele><time>2026-04-28T08:18:58.849Z</time></trkpt><trkpt lat="39.328583196754835" lon="8.962081656418574"><ele>15.0</ele><time>2026-04-28T08:18:59.849Z</time></trkpt><trkpt lat="39.32849786476924" lon="8.962256032755644"><ele>15.0</ele><time>2026-04-28T08:19:00.849Z</time></trkpt><trkpt lat="39.32841675980184" lon="8.96242089291917"><ele>14.5</ele><time>2026-04-28T08:19:01.849Z</time></trkpt><trkpt lat="39.32833457704934" lon="8.962587943869375"><ele>14.0</ele><time>2026-04-28T08:19:02.849Z</time></trkpt><trkpt lat="39.32825590121627" lon="8.962747866385618"><ele>13.5</ele><time>2026-04-28T08:19:03.849Z</time></trkpt><trkpt lat="39.32820045960015" lon="8.962901850808162"><ele>13.0</ele><time>2026-04-28T08:19:04.849Z</time></trkpt><trkpt lat="39.32813157245775" lon="8.963037048869705"><ele>13.0</ele><time>2026-04-28T08:19:05.849Z</time></trkpt><trkpt lat="39.328068570665636" lon="8.96315608381069"><ele>13.0</ele><time>2026-04-28T08:19:06.849Z</time></trkpt><trkpt lat="39.328013419456674" lon="8.963285985722514"><ele>13.0</ele><time>2026-04-28T08:19:07.849Z</time></trkpt><trkpt lat="39.327976799863706" lon="8.96339719287467"><ele>13.0</ele><time>2026-04-28T08:19:08.849Z</time></trkpt><trkpt lat="39.327954962973934" lon="8.963479049576298"><ele>13.0</ele><time>2026-04-28T08:19:09.849Z</time></trkpt><trkpt lat="39.3278951732016" lon="8.963596210258045"><ele>13.333333333333332</ele><time>2026-04-28T08:19:11.849Z</time></trkpt><trkpt lat="39.32781890183565" lon="8.964017233042073"><ele>13.666666666666668</ele><time>2026-04-28T08:19:12.849Z</time></trkpt><trkpt lat="39.32781021929344" lon="8.964138899018913"><ele>14.0</ele><time>2026-04-28T08:19:13.849Z</time></trkpt><trkpt lat="39.32781496594894" lon="8.964251928757394"><ele>14.0</ele><time>2026-04-28T08:19:14.849Z</time></trkpt><trkpt lat="39.32782771222411" lon="8.964375804811944"><ele>14.0</ele><time>2026-04-28T08:19:15.849Z</time></trkpt><trkpt lat="39.32785040985416" lon="8.964513588004632"><ele>14.0</ele><time>2026-04-28T08:19:16.849Z</time></trkpt><trkpt lat="39.327886622139445" lon="8.96466505607901"><ele>14.0</ele><time>2026-04-28T08:19:17.849Z</time></trkpt><trkpt lat="39.32792770407817" lon="8.964825425591165"><ele>14.0</ele><time>2026-04-28T08:19:18.849Z</time></trkpt><trkpt lat="39.327973696142756" lon="8.964995281458934"><ele>14.0</ele><time>2026-04-28T08:19:19.85Z</time></trkpt><trkpt lat="39.328017178484096" lon="8.96516490880463"><ele>14.0</ele><time>2026-04-28T08:19:20.85Z</time></trkpt><trkpt lat="39.32806127004252" lon="8.965332730436115"><ele>14.0</ele><time>2026-04-28T08:19:21.85Z</time></trkpt><trkpt lat="39.3281017796946" lon="8.965503479543758"><ele>14.25</ele><time>2026-04-28T08:19:22.85Z</time></trkpt><trkpt lat="39.3281458679958" lon="8.965676314672407"><ele>14.5</ele><time>2026-04-28T08:19:23.85Z</time></trkpt><trkpt lat="39.32818989784862" lon="8.965856317037284"><ele>14.75</ele><time>2026-04-28T08:19:24.85Z</time></trkpt><trkpt lat="39.328236694034935" lon="8.966045632271399"><ele>15.0</ele><time>2026-04-28T08:19:25.85Z</time></trkpt><trkpt lat="39.32828508613453" lon="8.966239020652047"><ele>15.0</ele><time>2026-04-28T08:19:26.85Z</time></trkpt><trkpt lat="39.328334158127255" lon="8.966433962108475"><ele>15.0</ele><time>2026-04-28T08:19:27.85Z</time></trkpt><trkpt lat="39.328381923927" lon="8.966629728537434"><ele>15.0</ele><time>2026-04-28T08:19:28.85Z</time></trkpt><trkpt lat="39.32842820754663" lon="8.966829791709184"><ele>15.666666666666668</ele><time>2026-04-28T08:19:29.85Z</time></trkpt><trkpt lat="39.328476323721986" lon="8.967034428129747"><ele>16.333333333333336</ele><time>2026-04-28T08:19:30.85Z</time></trkpt><trkpt lat="39.32852643913844" lon="8.967243269516873"><ele>17.0</ele><time>2026-04-28T08:19:31.85Z</time></trkpt><trkpt lat="39.32857516632794" lon="8.967446788525068"><ele>17.0</ele><time>2026-04-28T08:19:32.85Z</time></trkpt><trkpt lat="39.328621924100226" lon="8.967648607237553"><ele>17.0</ele><time>2026-04-28T08:19:33.85Z</time></trkpt><trkpt lat="39.32866972880149" lon="8.96785713150264"><ele>17.0</ele><time>2026-04-28T08:19:34.85Z</time></trkpt><trkpt lat="39.32871567633088" lon="8.968056817835146"><ele>17.0</ele><time>2026-04-28T08:19:35.85Z</time></trkpt><trkpt lat="39.328760892244084" lon="8.968240389896291"><ele>17.0</ele><time>2026-04-28T08:19:36.85Z</time></trkpt><trkpt lat="39.328804061139486" lon="8.9684094655186"><ele>17.0</ele><time>2026-04-28T08:19:37.85Z</time></trkpt><trkpt lat="39.32883954066298" lon="8.968527766531562"><ele>17.0</ele><time>2026-04-28T08:19:38.85Z</time></trkpt><trkpt lat="39.32890843060475" lon="8.968653959831249"><ele>16.8</ele><time>2026-04-28T08:19:40.85Z</time></trkpt><trkpt lat="39.32897726251431" lon="8.968706952574145"><ele>16.6</ele><time>2026-04-28T08:19:41.85Z</time></trkpt><trkpt lat="39.32905898845346" lon="8.968740313842638"><ele>16.400000000000002</ele><time>2026-04-28T08:19:42.85Z</time></trkpt><trkpt lat="39.329153527897724" lon="8.968791339612975"><ele>16.2</ele><time>2026-04-28T08:19:43.85Z</time></trkpt><trkpt lat="39.3292615328192" lon="8.968835260236707"><ele>16.0</ele><time>2026-04-28T08:19:44.85Z</time></trkpt><trkpt lat="39.32937054280531" lon="8.968861845169341"><ele>16.0</ele><time>2026-04-28T08:19:45.85Z</time></trkpt><trkpt lat="39.32947727040379" lon="8.968924176714102"><ele>16.0</ele><time>2026-04-28T08:19:46.85Z</time></trkpt><trkpt lat="39.32959054270711" lon="8.968988255535042"><ele>16.0</ele><time>2026-04-28T08:19:47.85Z</time></trkpt><trkpt lat="39.32968585082042" lon="8.969015243804897"><ele>16.0</ele><time>2026-04-28T08:19:48.85Z</time></trkpt><trkpt lat="39.32976598656249" lon="8.969052551803015"><ele>16.0</ele><time>2026-04-28T08:19:49.85Z</time></trkpt><trkpt lat="39.32983686497797" lon="8.96909914281884"><ele>15.999999999999998</ele><time>2026-04-28T08:19:50.85Z</time></trkpt><trkpt lat="39.3298941890961" lon="8.969133461361938"><ele>16.0</ele><time>2026-04-28T08:19:51.85Z</time></trkpt><trkpt lat="39.32996716001921" lon="8.96916085510332"><ele>16.0</ele><time>2026-04-28T08:19:53.85Z</time></trkpt><trkpt lat="39.32986675484424" lon="8.969087308413096"><ele>16.0</ele><time>2026-04-28T08:20:01.85Z</time></trkpt><trkpt lat="39.329790043280795" lon="8.96906343017969"><ele>15.999999999999998</ele><time>2026-04-28T08:20:02.85Z</time></trkpt><trkpt lat="39.32971102318029" lon="8.96902709239353"><ele>16.0</ele><time>2026-04-28T08:20:03.85Z</time></trkpt><trkpt lat="39.329633327138424" lon="8.968959669245786"><ele>16.0</ele><time>2026-04-28T08:20:04.85Z</time></trkpt><trkpt lat="39.32954629934293" lon="8.968917261614004"><ele>16.0</ele><time>2026-04-28T08:20:05.85Z</time></trkpt><trkpt lat="39.32944076024153" lon="8.968886950283887"><ele>16.0</ele><time>2026-04-28T08:20:06.85Z</time></trkpt><trkpt lat="39.329339569951415" lon="8.96882092944375"><ele>16.0</ele><time>2026-04-28T08:20:07.85Z</time></trkpt><trkpt lat="39.32923124014926" lon="8.968778016774333"><ele>16.0</ele><time>2026-04-28T08:20:08.85Z</time></trkpt><trkpt lat="39.32913532838975" lon="8.968741798626523"><ele>16.0</ele><time>2026-04-28T08:20:09.85Z</time></trkpt><trkpt lat="39.32905255703159" lon="8.968713547647187"><ele>16.0</ele><time>2026-04-28T08:20:10.85Z</time></trkpt><trkpt lat="39.32897294067277" lon="8.968659085331431"><ele>16.0</ele><time>2026-04-28T08:20:12.85Z</time></trkpt><trkpt lat="39.328910527334514" lon="8.968816886694176"><ele>16.0</ele><time>2026-04-28T08:20:19.85Z</time></trkpt><trkpt lat="39.32890384920604" lon="8.968932360486283"><ele>16.0</ele><time>2026-04-28T08:20:22.85Z</time></trkpt><trkpt lat="39.328936614554394" lon="8.96906198652559"><ele>16.0</ele><time>2026-04-28T08:20:24.85Z</time></trkpt><trkpt lat="39.32895753042234" lon="8.969141308917706"><ele>15.999999999999998</ele><time>2026-04-28T08:20:25.85Z</time></trkpt><trkpt lat="39.32897928912548" lon="8.969231319316458"><ele>16.0</ele><time>2026-04-28T08:20:26.848Z</time></trkpt><trkpt lat="39.328997321008664" lon="8.969318420696553"><ele>16.0</ele><time>2026-04-28T08:20:27.848Z</time></trkpt><trkpt lat="39.32902413622695" lon="8.96941619369451"><ele>15.999999999999998</ele><time>2026-04-28T08:20:28.848Z</time></trkpt><trkpt lat="39.32904754259522" lon="8.969511452280546"><ele>16.0</ele><time>2026-04-28T08:20:29.848Z</time></trkpt><trkpt lat="39.329071032911365" lon="8.969609032994013"><ele>16.0</ele><time>2026-04-28T08:20:30.848Z</time></trkpt><trkpt lat="39.32909136591593" lon="8.969697847499024"><ele>15.999999999999998</ele><time>2026-04-28T08:20:31.848Z</time></trkpt><trkpt lat="39.3291104256102" lon="8.969782850929091"><ele>16.0</ele><time>2026-04-28T08:20:32.848Z</time></trkpt><trkpt lat="39.32913037190633" lon="8.969862138209704"><ele>16.0</ele><time>2026-04-28T08:20:33.848Z</time></trkpt><trkpt lat="39.329163274888984" lon="8.970006593940052"><ele>16.0</ele><time>2026-04-28T08:20:35.848Z</time></trkpt><trkpt lat="39.3292002279631" lon="8.97013769426428"><ele>15.999999999999998</ele><time>2026-04-28T08:20:37.848Z</time></trkpt><trkpt lat="39.32922324452508" lon="8.970244946548142"><ele>16.0</ele><time>2026-04-28T08:20:39.848Z</time></trkpt><trkpt lat="39.32924217160122" lon="8.970338488224339"><ele>15.999999999999998</ele><time>2026-04-28T08:20:41.848Z</time></trkpt><trkpt lat="39.329263212572954" lon="8.970440593483579"><ele>16.0</ele><time>2026-04-28T08:20:44.848Z</time></trkpt><trkpt lat="39.32929047374576" lon="8.970535535974353"><ele>16.0</ele><time>2026-04-28T08:20:47.848Z</time></trkpt><trkpt lat="39.32931024752498" lon="8.970630942627983"><ele>16.0</ele><time>2026-04-28T08:20:49.848Z</time></trkpt><trkpt lat="39.329345997468714" lon="8.97076359849708"><ele>15.999999999999998</ele><time>2026-04-28T08:20:52.848Z</time></trkpt><trkpt lat="39.32937672423622" lon="8.97087345623972"><ele>16.0</ele><time>2026-04-28T08:20:54.848Z</time></trkpt><trkpt lat="39.32941856260801" lon="8.970963492044802"><ele>15.857142857142856</ele><time>2026-04-28T08:20:56.848Z</time></trkpt><trkpt lat="39.32945585836542" lon="8.971040172950524"><ele>15.714285714285712</ele><time>2026-04-28T08:20:58.848Z</time></trkpt><trkpt lat="39.32947843170834" lon="8.97112405590447"><ele>15.571428571428571</ele><time>2026-04-28T08:21:01.848Z</time></trkpt><trkpt lat="39.32950049203783" lon="8.971210936607829"><ele>15.428571428571427</ele><time>2026-04-28T08:21:03.848Z</time></trkpt><trkpt lat="39.32953095864668" lon="8.971320213178233"><ele>15.285714285714285</ele><time>2026-04-28T08:21:05.848Z</time></trkpt><trkpt lat="39.32956137487629" lon="8.971412112875509"><ele>15.142857142857142</ele><time>2026-04-28T08:21:07.848Z</time></trkpt><trkpt lat="39.32956879944988" lon="8.971503653067826"><ele>15.0</ele><time>2026-04-28T08:21:10.848Z</time></trkpt><trkpt lat="39.329562103155574" lon="8.971584879255586"><ele>15.0</ele><time>2026-04-28T08:21:13.848Z</time></trkpt><trkpt lat="39.32958377284387" lon="8.971671975081485"><ele>15.0</ele><time>2026-04-28T08:21:33.848Z</time></trkpt><trkpt lat="39.32961098002246" lon="8.971757868341223"><ele>15.0</ele><time>2026-04-28T08:21:41.848Z</time></trkpt><trkpt lat="39.32959751103881" lon="8.971846279538688"><ele>15.0</ele><time>2026-04-28T08:21:47.848Z</time></trkpt><trkpt lat="39.32964070576537" lon="8.971937544550023"><ele>15.0</ele><time>2026-04-28T08:21:56.848Z</time></trkpt><trkpt lat="39.329691278212444" lon="8.972043419050966"><ele>15.0</ele><time>2026-04-28T08:21:59.848Z</time></trkpt><trkpt lat="39.32972410339785" lon="8.972113200113538"><ele>15.333333333333334</ele><time>2026-04-28T08:22:01.848Z</time></trkpt><trkpt lat="39.32976016446971" lon="8.97219962259896"><ele>15.666666666666668</ele><time>2026-04-28T08:22:03.848Z</time></trkpt><trkpt lat="39.3297846527488" lon="8.97227569684295"><ele>16.0</ele><time>2026-04-28T08:22:05.848Z</time></trkpt><trkpt lat="39.329820279029676" lon="8.97237358798466"><ele>16.333333333333336</ele><time>2026-04-28T08:22:07.848Z</time></trkpt><trkpt lat="39.329869289167995" lon="8.97246947990966"><ele>16.666666666666668</ele><time>2026-04-28T08:22:09.848Z</time></trkpt><trkpt lat="39.32991471655511" lon="8.972564509879378"><ele>17.0</ele><time>2026-04-28T08:22:11.848Z</time></trkpt><trkpt lat="39.32996444193884" lon="8.972647550007785"><ele>17.0</ele><time>2026-04-28T08:22:13.848Z</time></trkpt><trkpt lat="39.33001234421427" lon="8.97274181022723"><ele>17.0</ele><time>2026-04-28T08:22:15.848Z</time></trkpt><trkpt lat="39.33005017223099" lon="8.972839613611038"><ele>17.0</ele><time>2026-04-28T08:22:17.848Z</time></trkpt><trkpt lat="39.330090751339704" lon="8.97293916517772"><ele>17.0</ele><time>2026-04-28T08:22:19.848Z</time></trkpt><trkpt lat="39.330134237445" lon="8.973030413447287"><ele>17.0</ele><time>2026-04-28T08:22:21.848Z</time></trkpt><trkpt lat="39.33017260023264" lon="8.97312772591343"><ele>17.0</ele><time>2026-04-28T08:22:23.848Z</time></trkpt><trkpt lat="39.33022151060104" lon="8.973214237891403"><ele>17.0</ele><time>2026-04-28T08:22:25.848Z</time></trkpt><trkpt lat="39.33027550547545" lon="8.97330086533033"><ele>17.0</ele><time>2026-04-28T08:22:27.848Z</time></trkpt><trkpt lat="39.33033112996213" lon="8.973404345940635"><ele>17.0</ele><time>2026-04-28T08:22:29.848Z</time></trkpt><trkpt lat="39.330392365169864" lon="8.9735011082934"><ele>17.0</ele><time>2026-04-28T08:22:31.848Z</time></trkpt><trkpt lat="39.330433426893485" lon="8.973585684143353"><ele>17.0</ele><time>2026-04-28T08:22:33.847Z</time></trkpt><trkpt lat="39.330483391606485" lon="8.97370836086452"><ele>16.8</ele><time>2026-04-28T08:22:35.847Z</time></trkpt><trkpt lat="39.3305383990321" lon="8.973789313138091"><ele>16.6</ele><time>2026-04-28T08:22:37.847Z</time></trkpt><trkpt lat="39.33058732247464" lon="8.973899207296057"><ele>16.400000000000002</ele><time>2026-04-28T08:22:39.847Z</time></trkpt><trkpt lat="39.330641054794" lon="8.974009142862627"><ele>16.2</ele><time>2026-04-28T08:22:41.847Z</time></trkpt><trkpt lat="39.33069939535456" lon="8.97409774139788"><ele>16.0</ele><time>2026-04-28T08:22:43.846Z</time></trkpt><trkpt lat="39.33074590904835" lon="8.974197447746151"><ele>15.8</ele><time>2026-04-28T08:22:45.847Z</time></trkpt><trkpt lat="39.33080445028881" lon="8.974331093126256"><ele>15.600000000000001</ele><time>2026-04-28T08:22:47.847Z</time></trkpt><trkpt lat="39.330842811698936" lon="8.974399640646295"><ele>15.4</ele><time>2026-04-28T08:22:48.847Z</time></trkpt><trkpt lat="39.33091158187726" lon="8.974524032931082"><ele>15.2</ele><time>2026-04-28T08:22:50.847Z</time></trkpt><trkpt lat="39.33094965111877" lon="8.974602934640208"><ele>15.0</ele><time>2026-04-28T08:22:51.847Z</time></trkpt><trkpt lat="39.33101381786942" lon="8.97472253335035"><ele>15.0</ele><time>2026-04-28T08:22:53.847Z</time></trkpt><trkpt lat="39.33108125980911" lon="8.974868673108237"><ele>15.0</ele><time>2026-04-28T08:22:55.847Z</time></trkpt><trkpt lat="39.331133773296024" lon="8.974969031043418"><ele>15.0</ele><time>2026-04-28T08:22:57.847Z</time></trkpt><trkpt lat="39.33119030584832" lon="8.975093159814227"><ele>15.0</ele><time>2026-04-28T08:22:59.847Z</time></trkpt><trkpt lat="39.33122501761931" lon="8.97516500616438"><ele>15.0</ele><time>2026-04-28T08:23:00.847Z</time></trkpt><trkpt lat="39.33126389348865" lon="8.975231328376594"><ele>15.2</ele><time>2026-04-28T08:23:01.847Z</time></trkpt><trkpt lat="39.33130728536668" lon="8.975328453117772"><ele>15.4</ele><time>2026-04-28T08:23:03.847Z</time></trkpt><trkpt lat="39.331362136721445" lon="8.975450131395917"><ele>15.600000000000001</ele><time>2026-04-28T08:23:05.847Z</time></trkpt><trkpt lat="39.33142022584572" lon="8.97557351129351"><ele>15.8</ele><time>2026-04-28T08:23:07.847Z</time></trkpt><trkpt lat="39.33148441565263" lon="8.97570042002609"><ele>16.0</ele><time>2026-04-28T08:23:09.847Z</time></trkpt><trkpt lat="39.331550642976474" lon="8.97581377722063"><ele>16.2</ele><time>2026-04-28T08:23:11.847Z</time></trkpt><trkpt lat="39.33161962362566" lon="8.975923510540754"><ele>16.400000000000002</ele><time>2026-04-28T08:23:13.847Z</time></trkpt><trkpt lat="39.33168212250325" lon="8.976027835448496"><ele>16.6</ele><time>2026-04-28T08:23:15.847Z</time></trkpt><trkpt lat="39.33175314960214" lon="8.976132723741811"><ele>16.8</ele><time>2026-04-28T08:23:17.847Z</time></trkpt><trkpt lat="39.33180790365464" lon="8.976237956181105"><ele>17.0</ele><time>2026-04-28T08:23:19.847Z</time></trkpt><trkpt lat="39.3318493001667" lon="8.97633594837559"><ele>17.0</ele><time>2026-04-28T08:23:21.847Z</time></trkpt><trkpt lat="39.331912962156736" lon="8.976412358194725"><ele>17.0</ele><time>2026-04-28T08:23:23.847Z</time></trkpt><trkpt lat="39.33197387652073" lon="8.976475033803728"><ele>17.0</ele><time>2026-04-28T08:23:25.847Z</time></trkpt><trkpt lat="39.332038992586924" lon="8.976527294137401"><ele>17.0</ele><time>2026-04-28T08:23:27.847Z</time></trkpt><trkpt lat="39.33210159519507" lon="8.976585024157671"><ele>17.0</ele><time>2026-04-28T08:23:30.847Z</time></trkpt><trkpt lat="39.332155422675825" lon="8.976653614066576"><ele>17.0</ele><time>2026-04-28T08:23:33.847Z</time></trkpt><trkpt lat="39.33221817019259" lon="8.97670315158489"><ele>17.0</ele><time>2026-04-28T08:23:44.847Z</time></trkpt><trkpt lat="39.332276513730925" lon="8.976757806330609"><ele>17.0</ele><time>2026-04-28T08:23:47.847Z</time></trkpt><trkpt lat="39.332344189379285" lon="8.976816999396958"><ele>17.0</ele><time>2026-04-28T08:23:50.847Z</time></trkpt><trkpt lat="39.33241580280795" lon="8.97686844638569"><ele>17.0</ele><time>2026-04-28T08:23:54.847Z</time></trkpt><trkpt lat="39.33247884226862" lon="8.976922491136273"><ele>17.0</ele><time>2026-04-28T08:23:57.847Z</time></trkpt><trkpt lat="39.33254151704536" lon="8.976978643273014"><ele>17.0</ele><time>2026-04-28T08:24:00.847Z</time></trkpt><trkpt lat="39.33260234214489" lon="8.977026145905995"><ele>17.0</ele><time>2026-04-28T08:24:03.847Z</time></trkpt><trkpt lat="39.33267891028614" lon="8.977080775544772"><ele>17.0</ele><time>2026-04-28T08:24:06.847Z</time></trkpt><trkpt lat="39.33274104503462" lon="8.97713176618304"><ele>17.0</ele><time>2026-04-28T08:24:08.847Z</time></trkpt><trkpt lat="39.33281081787607" lon="8.977186290134458"><ele>17.0</ele><time>2026-04-28T08:24:10.847Z</time></trkpt><trkpt lat="39.33289812860741" lon="8.977239283882144"><ele>17.0</ele><time>2026-04-28T08:24:12.847Z</time></trkpt><trkpt lat="39.3329883855421" lon="8.977279239448174"><ele>17.0</ele><time>2026-04-28T08:24:14.847Z</time></trkpt><trkpt lat="39.333074505024925" lon="8.977322515882351"><ele>17.0</ele><time>2026-04-28T08:24:16.847Z</time></trkpt><trkpt lat="39.33316932353464" lon="8.97735987067375"><ele>17.0</ele><time>2026-04-28T08:24:18.847Z</time></trkpt><trkpt lat="39.33325338962213" lon="8.977399628669056"><ele>17.0</ele><time>2026-04-28T08:24:20.847Z</time></trkpt><trkpt lat="39.33333006773699" lon="8.977444498202727"><ele>17.0</ele><time>2026-04-28T08:24:22.847Z</time></trkpt><trkpt lat="39.333400164751346" lon="8.977459527091142"><ele>17.0</ele><time>2026-04-28T08:24:24.847Z</time></trkpt><trkpt lat="39.33349978929367" lon="8.977485464305577"><ele>17.0</ele><time>2026-04-28T08:24:30.847Z</time></trkpt><trkpt lat="39.33359642432255" lon="8.977541774772643"><ele>17.0</ele><time>2026-04-28T08:24:32.847Z</time></trkpt><trkpt lat="39.333703327181354" lon="8.977558151765427"><ele>17.0</ele><time>2026-04-28T08:24:34.847Z</time></trkpt><trkpt lat="39.3337892923823" lon="8.977567254645074"><ele>17.0</ele><time>2026-04-28T08:24:36.847Z</time></trkpt><trkpt lat="39.33386707366754" lon="8.97756221539829"><ele>17.0</ele><time>2026-04-28T08:24:39.846Z</time></trkpt><trkpt lat="39.33393094232867" lon="8.977539507331125"><ele>17.0</ele><time>2026-04-28T08:24:41.846Z</time></trkpt><trkpt lat="39.3340112556826" lon="8.977524370034438"><ele>17.0</ele><time>2026-04-28T08:24:43.846Z</time></trkpt><trkpt lat="39.334105237482454" lon="8.97755054287565"><ele>17.6</ele><time>2026-04-28T08:24:45.846Z</time></trkpt><trkpt lat="39.33420438780402" lon="8.977551386293662"><ele>18.2</ele><time>2026-04-28T08:24:47.846Z</time></trkpt><trkpt lat="39.334313464009256" lon="8.977573552409499"><ele>18.8</ele><time>2026-04-28T08:24:49.846Z</time></trkpt><trkpt lat="39.33443099313728" lon="8.977597154112662"><ele>19.4</ele><time>2026-04-28T08:24:51.845Z</time></trkpt><trkpt lat="39.33449360653256" lon="8.977609405803728"><ele>20.0</ele><time>2026-04-28T08:24:52.845Z</time></trkpt><trkpt lat="39.33456014949596" lon="8.977620109378595"><ele>20.0</ele><time>2026-04-28T08:24:53.845Z</time></trkpt><trkpt lat="39.33463223905867" lon="8.977628256385653"><ele>20.0</ele><time>2026-04-28T08:24:54.845Z</time></trkpt><trkpt lat="39.334707725551986" lon="8.977639950709406"><ele>20.0</ele><time>2026-04-28T08:24:55.845Z</time></trkpt><trkpt lat="39.33478639618605" lon="8.977653229328574"><ele>20.0</ele><time>2026-04-28T08:24:56.845Z</time></trkpt><trkpt lat="39.33486916148987" lon="8.97766844484569"><ele>20.0</ele><time>2026-04-28T08:24:57.845Z</time></trkpt><trkpt lat="39.33495082394889" lon="8.977681558025015"><ele>20.0</ele><time>2026-04-28T08:24:58.845Z</time></trkpt><trkpt lat="39.33503549064928" lon="8.977696248195729"><ele>20.166666666666668</ele><time>2026-04-28T08:24:59.845Z</time></trkpt><trkpt lat="39.33512383403624" lon="8.977711869046232"><ele>20.333333333333336</ele><time>2026-04-28T08:25:00.845Z</time></trkpt><trkpt lat="39.33521253561275" lon="8.977724726282986"><ele>20.5</ele><time>2026-04-28T08:25:01.845Z</time></trkpt><trkpt lat="39.3353011474726" lon="8.977735459617687"><ele>20.666666666666668</ele><time>2026-04-28T08:25:02.845Z</time></trkpt><trkpt lat="39.3353856245392" lon="8.977746138584008"><ele>20.833333333333332</ele><time>2026-04-28T08:25:03.845Z</time></trkpt><trkpt lat="39.33546458860773" lon="8.977758571776974"><ele>21.0</ele><time>2026-04-28T08:25:04.845Z</time></trkpt><trkpt lat="39.33553973688052" lon="8.977769825682014"><ele>21.0</ele><time>2026-04-28T08:25:05.845Z</time></trkpt><trkpt lat="39.33561565783801" lon="8.977782229395725"><ele>21.0</ele><time>2026-04-28T08:25:06.845Z</time></trkpt><trkpt lat="39.33569046431776" lon="8.977791497635431"><ele>21.0</ele><time>2026-04-28T08:25:07.845Z</time></trkpt><trkpt lat="39.3357716881426" lon="8.977809985009037"><ele>21.0</ele><time>2026-04-28T08:25:08.845Z</time></trkpt><trkpt lat="39.3358593459465" lon="8.97782969846516"><ele>21.0</ele><time>2026-04-28T08:25:09.845Z</time></trkpt><trkpt lat="39.33596209164085" lon="8.97785523790505"><ele>21.0</ele><time>2026-04-28T08:25:10.845Z</time></trkpt><trkpt lat="39.336062037072324" lon="8.977868089705604"><ele>21.0</ele><time>2026-04-28T08:25:11.845Z</time></trkpt><trkpt lat="39.336146636977475" lon="8.977899848671186"><ele>21.0</ele><time>2026-04-28T08:25:12.845Z</time></trkpt><trkpt lat="39.33624880546236" lon="8.977916270043016"><ele>21.0</ele><time>2026-04-28T08:25:13.845Z</time></trkpt><trkpt lat="39.336358695416955" lon="8.977936010015625"><ele>21.0</ele><time>2026-04-28T08:25:14.845Z</time></trkpt><trkpt lat="39.336476076269456" lon="8.977963364634515"><ele>21.0</ele><time>2026-04-28T08:25:15.845Z</time></trkpt><trkpt lat="39.336565018539375" lon="8.977991742129543"><ele>20.75</ele><time>2026-04-28T08:25:16.845Z</time></trkpt><trkpt lat="39.33667516317712" lon="8.978031069389724"><ele>20.5</ele><time>2026-04-28T08:25:17.845Z</time></trkpt><trkpt lat="39.33679157796885" lon="8.978054590645485"><ele>20.25</ele><time>2026-04-28T08:25:18.845Z</time></trkpt><trkpt lat="39.33690542178128" lon="8.978103752721681"><ele>20.0</ele><time>2026-04-28T08:25:19.845Z</time></trkpt><trkpt lat="39.33702389067234" lon="8.978154556531782"><ele>20.0</ele><time>2026-04-28T08:25:20.845Z</time></trkpt><trkpt lat="39.33713099623567" lon="8.978199132132259"><ele>20.0</ele><time>2026-04-28T08:25:21.845Z</time></trkpt><trkpt lat="39.33723816640148" lon="8.978236406744605"><ele>20.0</ele><time>2026-04-28T08:25:22.845Z</time></trkpt><trkpt lat="39.33734836532315" lon="8.978301440539152"><ele>20.0</ele><time>2026-04-28T08:25:23.845Z</time></trkpt><trkpt lat="39.337457620150786" lon="8.978354890556314"><ele>20.0</ele><time>2026-04-28T08:25:24.845Z</time></trkpt><trkpt lat="39.3375765894281" lon="8.978390140329882"><ele>20.0</ele><time>2026-04-28T08:25:25.845Z</time></trkpt><trkpt lat="39.33768708468502" lon="8.978443573895134"><ele>20.0</ele><time>2026-04-28T08:25:26.845Z</time></trkpt><trkpt lat="39.337779445971904" lon="8.978543946837156"><ele>20.0</ele><time>2026-04-28T08:25:27.845Z</time></trkpt><trkpt lat="39.3378936950257" lon="8.978618416602947"><ele>20.0</ele><time>2026-04-28T08:25:28.845Z</time></trkpt><trkpt lat="39.33799562083027" lon="8.978670569196948"><ele>20.0</ele><time>2026-04-28T08:25:29.845Z</time></trkpt><trkpt lat="39.33810093416367" lon="8.978726208280113"><ele>20.0</ele><time>2026-04-28T08:25:30.845Z</time></trkpt><trkpt lat="39.3382065410639" lon="8.978793674649026"><ele>20.0</ele><time>2026-04-28T08:25:31.845Z</time></trkpt><trkpt lat="39.33831619694548" lon="8.978861408933302"><ele>20.166666666666668</ele><time>2026-04-28T08:25:32.845Z</time></trkpt><trkpt lat="39.33842116986815" lon="8.97892868445076"><ele>20.333333333333336</ele><time>2026-04-28T08:25:33.845Z</time></trkpt><trkpt lat="39.33847739972829" lon="8.978995190604442"><ele>20.5</ele><time>2026-04-28T08:25:34.845Z</time></trkpt><trkpt lat="39.338538146619264" lon="8.979023472724961"><ele>20.666666666666668</ele><time>2026-04-28T08:25:35.845Z</time></trkpt><trkpt lat="39.33859555238274" lon="8.979089614864616"><ele>20.833333333333332</ele><time>2026-04-28T08:25:36.845Z</time></trkpt><trkpt lat="39.33867038341667" lon="8.979145559046234"><ele>21.0</ele><time>2026-04-28T08:25:37.845Z</time></trkpt><trkpt lat="39.33875453734242" lon="8.979219761670995"><ele>21.0</ele><time>2026-04-28T08:25:38.845Z</time></trkpt><trkpt lat="39.33883854280303" lon="8.979306545414138"><ele>21.0</ele><time>2026-04-28T08:25:39.845Z</time></trkpt><trkpt lat="39.338920188266194" lon="8.979395330177903"><ele>21.0</ele><time>2026-04-28T08:25:40.845Z</time></trkpt><trkpt lat="39.33899937178602" lon="8.979464044411523"><ele>21.0</ele><time>2026-04-28T08:25:41.845Z</time></trkpt><trkpt lat="39.33908350131906" lon="8.97953832722638"><ele>21.0</ele><time>2026-04-28T08:25:42.845Z</time></trkpt><trkpt lat="39.339161682969866" lon="8.979623392066348"><ele>21.200000000000003</ele><time>2026-04-28T08:25:43.845Z</time></trkpt><trkpt lat="39.33924149910949" lon="8.979719666988563"><ele>21.400000000000002</ele><time>2026-04-28T08:25:44.845Z</time></trkpt><trkpt lat="39.33932245262772" lon="8.979807206950541"><ele>21.6</ele><time>2026-04-28T08:25:45.845Z</time></trkpt><trkpt lat="39.33940292035888" lon="8.979893767663382"><ele>21.8</ele><time>2026-04-28T08:25:46.845Z</time></trkpt><trkpt lat="39.33948342899282" lon="8.979991190770965"><ele>22.0</ele><time>2026-04-28T08:25:47.845Z</time></trkpt><trkpt lat="39.33955994129281" lon="8.9800847541612"><ele>22.0</ele><time>2026-04-28T08:25:48.845Z</time></trkpt><trkpt lat="39.33964014966613" lon="8.980179392937497"><ele>22.0</ele><time>2026-04-28T08:25:49.845Z</time></trkpt><trkpt lat="39.33971747370952" lon="8.980267152515596"><ele>22.0</ele><time>2026-04-28T08:25:50.845Z</time></trkpt><trkpt lat="39.339790003999525" lon="8.98034699399167"><ele>22.0</ele><time>2026-04-28T08:25:51.845Z</time></trkpt><trkpt lat="39.339863353770674" lon="8.980435024186614"><ele>22.0</ele><time>2026-04-28T08:25:52.845Z</time></trkpt><trkpt lat="39.3399285875429" lon="8.98052785470871"><ele>22.0</ele><time>2026-04-28T08:25:53.845Z</time></trkpt><trkpt lat="39.339997433400825" lon="8.980633820876372"><ele>22.0</ele><time>2026-04-28T08:25:54.845Z</time></trkpt><trkpt lat="39.34005772692566" lon="8.980740260192713"><ele>22.0</ele><time>2026-04-28T08:25:55.845Z</time></trkpt><trkpt lat="39.34012291972182" lon="8.980846235424472"><ele>22.0</ele><time>2026-04-28T08:25:56.845Z</time></trkpt><trkpt lat="39.340194806402664" lon="8.980951126666172"><ele>22.0</ele><time>2026-04-28T08:25:57.845Z</time></trkpt><trkpt lat="39.340259265355506" lon="8.981055150449862"><ele>22.0</ele><time>2026-04-28T08:25:58.845Z</time></trkpt><trkpt lat="39.340313954757946" lon="8.981171534757632"><ele>22.0</ele><time>2026-04-28T08:25:59.845Z</time></trkpt><trkpt lat="39.340377019253495" lon="8.981278488509576"><ele>22.0</ele><time>2026-04-28T08:26:00.845Z</time></trkpt><trkpt lat="39.34044603920997" lon="8.981377434682585"><ele>22.0</ele><time>2026-04-28T08:26:01.845Z</time></trkpt><trkpt lat="39.34051301689521" lon="8.981472139254743"><ele>22.0</ele><time>2026-04-28T08:26:02.845Z</time></trkpt><trkpt lat="39.34058765104124" lon="8.981571244798438"><ele>22.400000000000002</ele><time>2026-04-28T08:26:03.845Z</time></trkpt><trkpt lat="39.34066147685927" lon="8.981667866570419"><ele>22.8</ele><time>2026-04-28T08:26:04.845Z</time></trkpt><trkpt lat="39.340719863843084" lon="8.981777972780188"><ele>23.2</ele><time>2026-04-28T08:26:05.845Z</time></trkpt><trkpt lat="39.34077888356077" lon="8.981856668559189"><ele>23.6</ele><time>2026-04-28T08:26:06.845Z</time></trkpt><trkpt lat="39.34083992435918" lon="8.981939976236957"><ele>24.0</ele><time>2026-04-28T08:26:07.845Z</time></trkpt><trkpt lat="39.340892911671986" lon="8.982024102558862"><ele>24.0</ele><time>2026-04-28T08:26:08.845Z</time></trkpt><trkpt lat="39.34095341828886" lon="8.982117561828952"><ele>24.0</ele><time>2026-04-28T08:26:09.845Z</time></trkpt><trkpt lat="39.341017257788735" lon="8.982216130861765"><ele>24.0</ele><time>2026-04-28T08:26:10.845Z</time></trkpt><trkpt lat="39.34108503507452" lon="8.982316581508293"><ele>24.0</ele><time>2026-04-28T08:26:11.845Z</time></trkpt><trkpt lat="39.341155136641795" lon="8.98241814344235"><ele>24.0</ele><time>2026-04-28T08:26:12.845Z</time></trkpt><trkpt lat="39.341225573196695" lon="8.982522651017277"><ele>24.2</ele><time>2026-04-28T08:26:13.845Z</time></trkpt><trkpt lat="39.34128496730174" lon="8.98262486039522"><ele>24.4</ele><time>2026-04-28T08:26:14.845Z</time></trkpt><trkpt lat="39.34135158719478" lon="8.982734114721426"><ele>24.6</ele><time>2026-04-28T08:26:15.845Z</time></trkpt><trkpt lat="39.34142196436047" lon="8.982838575373481"><ele>24.8</ele><time>2026-04-28T08:26:16.845Z</time></trkpt><trkpt lat="39.34149582891122" lon="8.982945578351192"><ele>25.0</ele><time>2026-04-28T08:26:17.845Z</time></trkpt><trkpt lat="39.34156970234942" lon="8.983054576749101"><ele>25.0</ele><time>2026-04-28T08:26:18.845Z</time></trkpt><trkpt lat="39.34163704361096" lon="8.983152570172924"><ele>25.0</ele><time>2026-04-28T08:26:19.845Z</time></trkpt><trkpt lat="39.34169974603249" lon="8.983245428904159"><ele>25.0</ele><time>2026-04-28T08:26:20.845Z</time></trkpt><trkpt lat="39.34175584459748" lon="8.98333125192545"><ele>25.0</ele><time>2026-04-28T08:26:21.845Z</time></trkpt><trkpt lat="39.341801861381626" lon="8.983436917954602"><ele>25.0</ele><time>2026-04-28T08:26:22.845Z</time></trkpt><trkpt lat="39.34186340537486" lon="8.983536092635923"><ele>24.8</ele><time>2026-04-28T08:26:23.845Z</time></trkpt><trkpt lat="39.3419340992712" lon="8.983643842092938"><ele>24.6</ele><time>2026-04-28T08:26:24.845Z</time></trkpt><trkpt lat="39.34200351659685" lon="8.983744649879275"><ele>24.4</ele><time>2026-04-28T08:26:25.845Z</time></trkpt><trkpt lat="39.34206609111264" lon="8.983847676668368"><ele>24.2</ele><time>2026-04-28T08:26:26.845Z</time></trkpt><trkpt lat="39.342132522069534" lon="8.983944267326759"><ele>24.0</ele><time>2026-04-28T08:26:27.845Z</time></trkpt><trkpt lat="39.34220553854372" lon="8.98404676489652"><ele>24.4</ele><time>2026-04-28T08:26:28.845Z</time></trkpt><trkpt lat="39.34227576946587" lon="8.984152028516593"><ele>24.799999999999997</ele><time>2026-04-28T08:26:29.845Z</time></trkpt><trkpt lat="39.342339275954046" lon="8.984241562664119"><ele>25.200000000000003</ele><time>2026-04-28T08:26:30.845Z</time></trkpt><trkpt lat="39.34239977760088" lon="8.984352886967482"><ele>25.6</ele><time>2026-04-28T08:26:31.845Z</time></trkpt><trkpt lat="39.34246978594477" lon="8.984449187192642"><ele>26.0</ele><time>2026-04-28T08:26:32.845Z</time></trkpt><trkpt lat="39.34253572432474" lon="8.984553566643722"><ele>26.0</ele><time>2026-04-28T08:26:33.845Z</time></trkpt><trkpt lat="39.3426008579242" lon="8.984663577933073"><ele>26.0</ele><time>2026-04-28T08:26:34.845Z</time></trkpt><trkpt lat="39.342661166751505" lon="8.98477230574031"><ele>26.0</ele><time>2026-04-28T08:26:35.845Z</time></trkpt><trkpt lat="39.34271502448315" lon="8.984868565972722"><ele>26.0</ele><time>2026-04-28T08:26:36.845Z</time></trkpt><trkpt lat="39.34277669932805" lon="8.984963464578732"><ele>26.0</ele><time>2026-04-28T08:26:37.845Z</time></trkpt><trkpt lat="39.34284330584468" lon="8.98505678132523"><ele>26.0</ele><time>2026-04-28T08:26:38.845Z</time></trkpt><trkpt lat="39.34291712236202" lon="8.985156370586589"><ele>26.0</ele><time>2026-04-28T08:26:39.845Z</time></trkpt><trkpt lat="39.34298651226576" lon="8.985248363137417"><ele>26.0</ele><time>2026-04-28T08:26:40.845Z</time></trkpt><trkpt lat="39.34304513032229" lon="8.985335828899167"><ele>26.0</ele><time>2026-04-28T08:26:41.845Z</time></trkpt><trkpt lat="39.343102683491125" lon="8.985427954085608"><ele>26.0</ele><time>2026-04-28T08:26:42.845Z</time></trkpt><trkpt lat="39.34316822833276" lon="8.985522406952985"><ele>26.0</ele><time>2026-04-28T08:26:43.845Z</time></trkpt><trkpt lat="39.34323088224246" lon="8.985610611875181"><ele>26.0</ele><time>2026-04-28T08:26:44.844Z</time></trkpt><trkpt lat="39.343298282748954" lon="8.98569223581912"><ele>26.0</ele><time>2026-04-28T08:26:45.844Z</time></trkpt><trkpt lat="39.34337627856066" lon="8.985777865298985"><ele>26.0</ele><time>2026-04-28T08:26:46.844Z</time></trkpt><trkpt lat="39.343459410861506" lon="8.985864697488848"><ele>26.0</ele><time>2026-04-28T08:26:47.844Z</time></trkpt><trkpt lat="39.34352450409426" lon="8.985944296626641"><ele>25.8</ele><time>2026-04-28T08:26:48.843Z</time></trkpt><trkpt lat="39.34359801048292" lon="8.986014755215303"><ele>25.6</ele><time>2026-04-28T08:26:49.843Z</time></trkpt><trkpt lat="39.343679051440745" lon="8.986088995890022"><ele>25.4</ele><time>2026-04-28T08:26:50.844Z</time></trkpt><trkpt lat="39.34376380001589" lon="8.986163661400514"><ele>25.2</ele><time>2026-04-28T08:26:51.844Z</time></trkpt><trkpt lat="39.343842960378794" lon="8.986240776020187"><ele>25.0</ele><time>2026-04-28T08:26:52.844Z</time></trkpt><trkpt lat="39.34392868696476" lon="8.986318841923595"><ele>25.6</ele><time>2026-04-28T08:26:53.843Z</time></trkpt><trkpt lat="39.34401409919533" lon="8.986386991926286"><ele>26.2</ele><time>2026-04-28T08:26:54.843Z</time></trkpt><trkpt lat="39.34408899966419" lon="8.986443186146694"><ele>26.799999999999997</ele><time>2026-04-28T08:26:55.843Z</time></trkpt><trkpt lat="39.34416508478593" lon="8.98650308778908"><ele>27.4</ele><time>2026-04-28T08:26:56.844Z</time></trkpt><trkpt lat="39.344243968986966" lon="8.98656867582957"><ele>28.0</ele><time>2026-04-28T08:26:57.843Z</time></trkpt><trkpt lat="39.34432847089231" lon="8.986627205616275"><ele>28.0</ele><time>2026-04-28T08:26:58.843Z</time></trkpt><trkpt lat="39.34442883172114" lon="8.986689240830113"><ele>27.999999999999996</ele><time>2026-04-28T08:26:59.843Z</time></trkpt><trkpt lat="39.34452972170106" lon="8.98674906967815"><ele>27.999999999999996</ele><time>2026-04-28T08:27:00.843Z</time></trkpt><trkpt lat="39.344628531869695" lon="8.986812519960303"><ele>28.0</ele><time>2026-04-28T08:27:01.843Z</time></trkpt><trkpt lat="39.344721729432656" lon="8.98685921394825"><ele>28.0</ele><time>2026-04-28T08:27:02.843Z</time></trkpt><trkpt lat="39.34481923355849" lon="8.986912144793115"><ele>28.0</ele><time>2026-04-28T08:27:03.843Z</time></trkpt><trkpt lat="39.34491592054832" lon="8.986965877935146"><ele>27.999999999999996</ele><time>2026-04-28T08:27:04.843Z</time></trkpt><trkpt lat="39.34501512933204" lon="8.987008303557083"><ele>27.999999999999996</ele><time>2026-04-28T08:27:05.843Z</time></trkpt><trkpt lat="39.345119893447375" lon="8.987041839324586"><ele>28.0</ele><time>2026-04-28T08:27:06.843Z</time></trkpt><trkpt lat="39.34523753045335" lon="8.987080070433148"><ele>28.0</ele><time>2026-04-28T08:27:07.843Z</time></trkpt><trkpt lat="39.34535245305042" lon="8.987122882087304"><ele>28.0</ele><time>2026-04-28T08:27:08.843Z</time></trkpt><trkpt lat="39.345446106095814" lon="8.987188191210612"><ele>27.999999999999996</ele><time>2026-04-28T08:27:09.843Z</time></trkpt><trkpt lat="39.345542294619534" lon="8.98722625612773"><ele>27.999999999999996</ele><time>2026-04-28T08:27:10.843Z</time></trkpt><trkpt lat="39.34564909882513" lon="8.987271155364724"><ele>28.0</ele><time>2026-04-28T08:27:11.843Z</time></trkpt><trkpt lat="39.34575231416462" lon="8.987291734859983"><ele>28.0</ele><time>2026-04-28T08:27:12.843Z</time></trkpt><trkpt lat="39.34586833831022" lon="8.987309976856013"><ele>28.5</ele><time>2026-04-28T08:27:13.843Z</time></trkpt><trkpt lat="39.34597969775658" lon="8.9873255154513"><ele>29.0</ele><time>2026-04-28T08:27:14.843Z</time></trkpt><trkpt lat="39.346096629301044" lon="8.987341430526039"><ele>29.5</ele><time>2026-04-28T08:27:15.843Z</time></trkpt><trkpt lat="39.346213061304745" lon="8.987352174701368"><ele>30.0</ele><time>2026-04-28T08:27:16.843Z</time></trkpt><trkpt lat="39.34632693858895" lon="8.987366697683004"><ele>30.0</ele><time>2026-04-28T08:27:17.843Z</time></trkpt><trkpt lat="39.34643813807238" lon="8.987371562636337"><ele>30.0</ele><time>2026-04-28T08:27:18.843Z</time></trkpt><trkpt lat="39.3465497533707" lon="8.987351106895836"><ele>30.0</ele><time>2026-04-28T08:27:19.843Z</time></trkpt><trkpt lat="39.34667254071321" lon="8.987333821894536"><ele>30.0</ele><time>2026-04-28T08:27:20.843Z</time></trkpt><trkpt lat="39.34679052090243" lon="8.987322663027847"><ele>30.0</ele><time>2026-04-28T08:27:21.843Z</time></trkpt><trkpt lat="39.34690617327636" lon="8.987317427946826"><ele>30.0</ele><time>2026-04-28T08:27:22.843Z</time></trkpt><trkpt lat="39.34702447196619" lon="8.987307314458059"><ele>30.0</ele><time>2026-04-28T08:27:23.843Z</time></trkpt><trkpt lat="39.34713693543818" lon="8.98730137523921"><ele>30.0</ele><time>2026-04-28T08:27:24.843Z</time></trkpt><trkpt lat="39.34725875066546" lon="8.987285252666329"><ele>30.0</ele><time>2026-04-28T08:27:25.843Z</time></trkpt><trkpt lat="39.347396275622664" lon="8.987258553594803"><ele>30.0</ele><time>2026-04-28T08:27:26.843Z</time></trkpt><trkpt lat="39.34753411884294" lon="8.987231751911175"><ele>30.0</ele><time>2026-04-28T08:27:27.843Z</time></trkpt><trkpt lat="39.34768737102628" lon="8.987183865836386"><ele>30.0</ele><time>2026-04-28T08:27:28.843Z</time></trkpt><trkpt lat="39.34783150461261" lon="8.987132352053472"><ele>30.0</ele><time>2026-04-28T08:27:29.843Z</time></trkpt><trkpt lat="39.34798523000396" lon="8.987078353490368"><ele>30.0</ele><time>2026-04-28T08:27:30.843Z</time></trkpt><trkpt lat="39.348130147148254" lon="8.987015688220671"><ele>30.0</ele><time>2026-04-28T08:27:31.843Z</time></trkpt><trkpt lat="39.34827227396093" lon="8.986983991941521"><ele>29.75</ele><time>2026-04-28T08:27:32.843Z</time></trkpt><trkpt lat="39.348413287154955" lon="8.986921121404711"><ele>29.5</ele><time>2026-04-28T08:27:33.843Z</time></trkpt><trkpt lat="39.34855757344865" lon="8.98686002419744"><ele>29.25</ele><time>2026-04-28T08:27:34.843Z</time></trkpt><trkpt lat="39.3486979078787" lon="8.986798645021818"><ele>29.0</ele><time>2026-04-28T08:27:35.843Z</time></trkpt><trkpt lat="39.348824708398254" lon="8.986752056749182"><ele>28.75</ele><time>2026-04-28T08:27:36.843Z</time></trkpt><trkpt lat="39.348943321981245" lon="8.986715485154509"><ele>28.5</ele><time>2026-04-28T08:27:37.843Z</time></trkpt><trkpt lat="39.34905758095651" lon="8.986674674155493"><ele>28.25</ele><time>2026-04-28T08:27:38.843Z</time></trkpt><trkpt lat="39.3491872757945" lon="8.986623866935213"><ele>28.0</ele><time>2026-04-28T08:27:39.843Z</time></trkpt><trkpt lat="39.349325386812474" lon="8.986576430737287"><ele>29.0</ele><time>2026-04-28T08:27:40.843Z</time></trkpt><trkpt lat="39.349472255419116" lon="8.986536270322862"><ele>30.0</ele><time>2026-04-28T08:27:41.843Z</time></trkpt><trkpt lat="39.349626740022565" lon="8.986500293298462"><ele>31.0</ele><time>2026-04-28T08:27:42.843Z</time></trkpt><trkpt lat="39.349779524447655" lon="8.986468007123934"><ele>31.0</ele><time>2026-04-28T08:27:43.843Z</time></trkpt><trkpt lat="39.34992774446668" lon="8.986445385650335"><ele>31.0</ele><time>2026-04-28T08:27:44.843Z</time></trkpt><trkpt lat="39.35005938089458" lon="8.986425641362132"><ele>31.0</ele><time>2026-04-28T08:27:45.843Z</time></trkpt><trkpt lat="39.35017768665117" lon="8.986414319350898"><ele>31.0</ele><time>2026-04-28T08:27:46.843Z</time></trkpt><trkpt lat="39.35029939039201" lon="8.986421037373788"><ele>31.0</ele><time>2026-04-28T08:27:47.843Z</time></trkpt><trkpt lat="39.35043694659866" lon="8.986431190772887"><ele>31.0</ele><time>2026-04-28T08:27:48.843Z</time></trkpt><trkpt lat="39.35057319383671" lon="8.986456268123241"><ele>31.0</ele><time>2026-04-28T08:27:49.843Z</time></trkpt><trkpt lat="39.35071939155806" lon="8.986473643731026"><ele>31.0</ele><time>2026-04-28T08:27:50.843Z</time></trkpt><trkpt lat="39.350872215927204" lon="8.986492010628853"><ele>30.333333333333336</ele><time>2026-04-28T08:27:51.843Z</time></trkpt><trkpt lat="39.35103038047124" lon="8.986517458763332"><ele>29.666666666666664</ele><time>2026-04-28T08:27:52.843Z</time></trkpt><trkpt lat="39.35118372876944" lon="8.986539456915986"><ele>29.0</ele><time>2026-04-28T08:27:53.843Z</time></trkpt><trkpt lat="39.35133734307421" lon="8.986557737794913"><ele>29.25</ele><time>2026-04-28T08:27:54.843Z</time></trkpt><trkpt lat="39.35148572501323" lon="8.986587568215569"><ele>29.5</ele><time>2026-04-28T08:27:55.843Z</time></trkpt><trkpt lat="39.35161799869313" lon="8.986620673165866"><ele>29.75</ele><time>2026-04-28T08:27:56.843Z</time></trkpt><trkpt lat="39.351746767338234" lon="8.98665884038614"><ele>30.0</ele><time>2026-04-28T08:27:57.843Z</time></trkpt><trkpt lat="39.35188104911035" lon="8.986710353606007"><ele>30.0</ele><time>2026-04-28T08:27:58.843Z</time></trkpt><trkpt lat="39.35202101352504" lon="8.986771024101058"><ele>30.0</ele><time>2026-04-28T08:27:59.843Z</time></trkpt><trkpt lat="39.35216275547692" lon="8.98683943716482"><ele>30.0</ele><time>2026-04-28T08:28:00.843Z</time></trkpt><trkpt lat="39.35230035387099" lon="8.986911240839454"><ele>30.0</ele><time>2026-04-28T08:28:01.843Z</time></trkpt><trkpt lat="39.35243911836611" lon="8.986992515993366"><ele>30.333333333333336</ele><time>2026-04-28T08:28:02.843Z</time></trkpt><trkpt lat="39.352582225527776" lon="8.987079664190865"><ele>30.666666666666668</ele><time>2026-04-28T08:28:03.843Z</time></trkpt><trkpt lat="39.35271581390804" lon="8.987167783563468"><ele>31.0</ele><time>2026-04-28T08:28:04.843Z</time></trkpt><trkpt lat="39.35285028742073" lon="8.987272897831431"><ele>31.0</ele><time>2026-04-28T08:28:05.843Z</time></trkpt><trkpt lat="39.352982674761286" lon="8.9873851267425"><ele>31.0</ele><time>2026-04-28T08:28:06.843Z</time></trkpt><trkpt lat="39.353099407852966" lon="8.987475820068319"><ele>31.0</ele><time>2026-04-28T08:28:07.843Z</time></trkpt><trkpt lat="39.35319317885607" lon="8.987580527705424"><ele>31.0</ele><time>2026-04-28T08:28:08.843Z</time></trkpt><trkpt lat="39.3532955046476" lon="8.987675785980766"><ele>31.0</ele><time>2026-04-28T08:28:09.843Z</time></trkpt><trkpt lat="39.35339697126683" lon="8.987773468308426"><ele>31.0</ele><time>2026-04-28T08:28:10.843Z</time></trkpt><trkpt lat="39.35349890164445" lon="8.987879126952377"><ele>31.0</ele><time>2026-04-28T08:28:11.843Z</time></trkpt><trkpt lat="39.35360928108901" lon="8.987987171595007"><ele>31.0</ele><time>2026-04-28T08:28:12.843Z</time></trkpt><trkpt lat="39.35370892729292" lon="8.988130535373813"><ele>31.0</ele><time>2026-04-28T08:28:13.843Z</time></trkpt><trkpt lat="39.35380066730942" lon="8.98826170271646"><ele>31.0</ele><time>2026-04-28T08:28:14.843Z</time></trkpt><trkpt lat="39.353892341016575" lon="8.9883921101755"><ele>31.0</ele><time>2026-04-28T08:28:15.843Z</time></trkpt><trkpt lat="39.353989591582696" lon="8.988529022289208"><ele>31.0</ele><time>2026-04-28T08:28:16.843Z</time></trkpt><trkpt lat="39.35408598939865" lon="8.988669906821839"><ele>31.333333333333336</ele><time>2026-04-28T08:28:17.844Z</time></trkpt><trkpt lat="39.354177126841435" lon="8.988804444684684"><ele>31.666666666666664</ele><time>2026-04-28T08:28:18.844Z</time></trkpt><trkpt lat="39.354271034876625" lon="8.988935764008064"><ele>32.0</ele><time>2026-04-28T08:28:19.844Z</time></trkpt><trkpt lat="39.35441841872018" lon="8.989133390567108"><ele>32.0</ele><time>2026-04-28T08:28:20.844Z</time></trkpt><trkpt lat="39.354511950914976" lon="8.989285786490946"><ele>32.0</ele><time>2026-04-28T08:28:21.844Z</time></trkpt><trkpt lat="39.35461329000094" lon="8.989428124425105"><ele>32.0</ele><time>2026-04-28T08:28:22.844Z</time></trkpt><trkpt lat="39.35471307292906" lon="8.989568886953286"><ele>32.0</ele><time>2026-04-28T08:28:23.844Z</time></trkpt><trkpt lat="39.354809821918366" lon="8.9897043905423"><ele>32.33333333333333</ele><time>2026-04-28T08:28:24.844Z</time></trkpt><trkpt lat="39.3549105440672" lon="8.989843492025718"><ele>32.666666666666664</ele><time>2026-04-28T08:28:25.844Z</time></trkpt><trkpt lat="39.35501805913985" lon="8.989990223559492"><ele>33.0</ele><time>2026-04-28T08:28:26.844Z</time></trkpt><trkpt lat="39.35512597253806" lon="8.990139350995054"><ele>33.0</ele><time>2026-04-28T08:28:27.844Z</time></trkpt><trkpt lat="39.355235435970854" lon="8.990294903002615"><ele>33.0</ele><time>2026-04-28T08:28:28.844Z</time></trkpt><trkpt lat="39.35534132080008" lon="8.990444783593931"><ele>33.0</ele><time>2026-04-28T08:28:29.844Z</time></trkpt><trkpt lat="39.3554451453422" lon="8.990591096223966"><ele>33.0</ele><time>2026-04-28T08:28:30.844Z</time></trkpt><trkpt lat="39.35554802439679" lon="8.990743957827185"><ele>33.0</ele><time>2026-04-28T08:28:31.844Z</time></trkpt><trkpt lat="39.355654627565656" lon="8.99089460559932"><ele>33.0</ele><time>2026-04-28T08:28:32.844Z</time></trkpt><trkpt lat="39.3557648765968" lon="8.991047994934172"><ele>33.0</ele><time>2026-04-28T08:28:33.844Z</time></trkpt><trkpt lat="39.355873412204275" lon="8.991208921503086"><ele>33.0</ele><time>2026-04-28T08:28:34.844Z</time></trkpt><trkpt lat="39.355982139146896" lon="8.991369165394918"><ele>33.0</ele><time>2026-04-28T08:28:35.844Z</time></trkpt><trkpt lat="39.3560931802846" lon="8.991525322646035"><ele>33.0</ele><time>2026-04-28T08:28:36.844Z</time></trkpt><trkpt lat="39.35619920148886" lon="8.991679701027348"><ele>33.0</ele><time>2026-04-28T08:28:37.844Z</time></trkpt><trkpt lat="39.35629861320469" lon="8.99182858175579"><ele>33.0</ele><time>2026-04-28T08:28:38.844Z</time></trkpt><trkpt lat="39.35639768986486" lon="8.991978324581353"><ele>33.0</ele><time>2026-04-28T08:28:39.844Z</time></trkpt><trkpt lat="39.35649215564612" lon="8.992118426328522"><ele>33.0</ele><time>2026-04-28T08:28:40.844Z</time></trkpt><trkpt lat="39.35659265347258" lon="8.992270113154804"><ele>33.0</ele><time>2026-04-28T08:28:41.844Z</time></trkpt><trkpt lat="39.35668897035359" lon="8.992413235084628"><ele>33.0</ele><time>2026-04-28T08:28:42.844Z</time></trkpt><trkpt lat="39.35677661978278" lon="8.992539458826142"><ele>33.0</ele><time>2026-04-28T08:28:43.844Z</time></trkpt><trkpt lat="39.35686077249298" lon="8.992653191773984"><ele>33.0</ele><time>2026-04-28T08:28:44.844Z</time></trkpt><trkpt lat="39.35691856428964" lon="8.992734053081483"><ele>33.0</ele><time>2026-04-28T08:28:45.844Z</time></trkpt><trkpt lat="39.35696478995016" lon="8.992794000904942"><ele>33.0</ele><time>2026-04-28T08:28:46.844Z</time></trkpt><trkpt lat="39.3570183900379" lon="8.992838690355002"><ele>33.0</ele><time>2026-04-28T08:28:54.842Z</time></trkpt><trkpt lat="39.35710225032034" lon="8.99292613922118"><ele>33.0</ele><time>2026-04-28T08:29:53.842Z</time></trkpt><trkpt lat="39.35717808075649" lon="8.99296891366155"><ele>33.75</ele><time>2026-04-28T08:29:54.842Z</time></trkpt><trkpt lat="39.35726172650829" lon="8.993035462362306"><ele>34.5</ele><time>2026-04-28T08:29:55.842Z</time></trkpt><trkpt lat="39.357365827808934" lon="8.993100165796399"><ele>35.25</ele><time>2026-04-28T08:29:56.842Z</time></trkpt><trkpt lat="39.35748338514366" lon="8.993159867331155"><ele>36.0</ele><time>2026-04-28T08:29:57.842Z</time></trkpt><trkpt lat="39.35759069785635" lon="8.993212017924481"><ele>36.0</ele><time>2026-04-28T08:29:58.842Z</time></trkpt><trkpt lat="39.357703845747615" lon="8.993252007723974"><ele>36.0</ele><time>2026-04-28T08:29:59.842Z</time></trkpt><trkpt lat="39.35782510597614" lon="8.99328297413311"><ele>36.0</ele><time>2026-04-28T08:30:00.842Z</time></trkpt><trkpt lat="39.35796260463879" lon="8.993299169036074"><ele>36.0</ele><time>2026-04-28T08:30:01.842Z</time></trkpt><trkpt lat="39.358110640027625" lon="8.993312649509866"><ele>36.0</ele><time>2026-04-28T08:30:02.842Z</time></trkpt><trkpt lat="39.35826421177846" lon="8.993324502584512"><ele>36.0</ele><time>2026-04-28T08:30:03.842Z</time></trkpt><trkpt lat="39.35842611941652" lon="8.993334720543846"><ele>36.0</ele><time>2026-04-28T08:30:04.842Z</time></trkpt><trkpt lat="39.35858245378453" lon="8.993349506702062"><ele>35.666666666666664</ele><time>2026-04-28T08:30:05.842Z</time></trkpt><trkpt lat="39.35874033583173" lon="8.993363679256912"><ele>35.33333333333333</ele><time>2026-04-28T08:30:06.842Z</time></trkpt><trkpt lat="39.35889919184235" lon="8.99337798163327"><ele>35.0</ele><time>2026-04-28T08:30:07.842Z</time></trkpt><trkpt lat="39.3590601152821" lon="8.993395600666608"><ele>34.75</ele><time>2026-04-28T08:30:08.842Z</time></trkpt><trkpt lat="39.3592101334485" lon="8.993423449719117"><ele>34.5</ele><time>2026-04-28T08:30:09.842Z</time></trkpt><trkpt lat="39.35935079523408" lon="8.99346839567893"><ele>34.25</ele><time>2026-04-28T08:30:10.842Z</time></trkpt><trkpt lat="39.35948356004017" lon="8.993525307087904"><ele>34.0</ele><time>2026-04-28T08:30:11.842Z</time></trkpt><trkpt lat="39.35961349979953" lon="8.993593380672612"><ele>34.25</ele><time>2026-04-28T08:30:12.842Z</time></trkpt><trkpt lat="39.35974077766969" lon="8.993677120520662"><ele>34.5</ele><time>2026-04-28T08:30:13.842Z</time></trkpt><trkpt lat="39.359855185241095" lon="8.993777278574363"><ele>34.75</ele><time>2026-04-28T08:30:14.842Z</time></trkpt><trkpt lat="39.35995873383534" lon="8.993893527535786"><ele>35.0</ele><time>2026-04-28T08:30:15.842Z</time></trkpt><trkpt lat="39.36003299578812" lon="8.994030872603153"><ele>35.0</ele><time>2026-04-28T08:30:16.842Z</time></trkpt><trkpt lat="39.3601137548865" lon="8.994163154852826"><ele>35.0</ele><time>2026-04-28T08:30:17.842Z</time></trkpt><trkpt lat="39.36018581357321" lon="8.994309114475536"><ele>35.0</ele><time>2026-04-28T08:30:18.842Z</time></trkpt><trkpt lat="39.36025099730289" lon="8.994472530416369"><ele>35.0</ele><time>2026-04-28T08:30:19.842Z</time></trkpt><trkpt lat="39.360307335926265" lon="8.994648975808722"><ele>35.0</ele><time>2026-04-28T08:30:20.842Z</time></trkpt><trkpt lat="39.3603734090322" lon="8.994832297359114"><ele>35.0</ele><time>2026-04-28T08:30:21.842Z</time></trkpt><trkpt lat="39.36042072995422" lon="8.995031471676528"><ele>35.0</ele><time>2026-04-28T08:30:22.842Z</time></trkpt><trkpt lat="39.36046222884244" lon="8.99522858292424"><ele>35.25</ele><time>2026-04-28T08:30:23.842Z</time></trkpt><trkpt lat="39.36050353912571" lon="8.995415375712952"><ele>35.5</ele><time>2026-04-28T08:30:24.842Z</time></trkpt><trkpt lat="39.36053414035421" lon="8.995580853391447"><ele>35.75</ele><time>2026-04-28T08:30:25.842Z</time></trkpt><trkpt lat="39.36057204342187" lon="8.995714706413294"><ele>36.0</ele><time>2026-04-28T08:30:26.842Z</time></trkpt><trkpt lat="39.36061752864794" lon="8.995824179166869"><ele>36.0</ele><time>2026-04-28T08:30:27.842Z</time></trkpt><trkpt lat="39.360639305351754" lon="8.995911196499778"><ele>36.0</ele><time>2026-04-28T08:30:28.842Z</time></trkpt><trkpt lat="39.36074320867213" lon="8.995939517837261"><ele>36.0</ele><time>2026-04-28T08:30:30.842Z</time></trkpt><trkpt lat="39.3608303166298" lon="8.99589587143685"><ele>36.0</ele><time>2026-04-28T08:30:32.842Z</time></trkpt><trkpt lat="39.36090005390079" lon="8.995835378455482"><ele>36.0</ele><time>2026-04-28T08:30:34.842Z</time></trkpt><trkpt lat="39.36100629818619" lon="8.995819437076923"><ele>36.2</ele><time>2026-04-28T08:30:36.842Z</time></trkpt><trkpt lat="39.36107766167281" lon="8.995823379292393"><ele>36.400000000000006</ele><time>2026-04-28T08:30:37.842Z</time></trkpt><trkpt lat="39.361161429156915" lon="8.995823602753784"><ele>36.6</ele><time>2026-04-28T08:30:38.842Z</time></trkpt><trkpt lat="39.36125693059101" lon="8.9958257150791"><ele>36.800000000000004</ele><time>2026-04-28T08:30:39.842Z</time></trkpt><trkpt lat="39.361357189354685" lon="8.995827447408084"><ele>37.0</ele><time>2026-04-28T08:30:40.842Z</time></trkpt><trkpt lat="39.36146494415319" lon="8.995811529299683"><ele>37.4</ele><time>2026-04-28T08:30:41.842Z</time></trkpt><trkpt lat="39.36156265119104" lon="8.99577934016794"><ele>37.800000000000004</ele><time>2026-04-28T08:30:42.842Z</time></trkpt><trkpt lat="39.36164852378891" lon="8.995732158252059"><ele>38.2</ele><time>2026-04-28T08:30:43.842Z</time></trkpt><trkpt lat="39.36172959041786" lon="8.995687400638701"><ele>38.6</ele><time>2026-04-28T08:30:44.842Z</time></trkpt><trkpt lat="39.36180115880934" lon="8.995638293959765"><ele>39.0</ele><time>2026-04-28T08:30:45.842Z</time></trkpt><trkpt lat="39.36188192397631" lon="8.9955640171722"><ele>39.0</ele><time>2026-04-28T08:30:46.842Z</time></trkpt><trkpt lat="39.361955612415585" lon="8.995481618797157"><ele>39.0</ele><time>2026-04-28T08:30:47.842Z</time></trkpt><trkpt lat="39.362011755689124" lon="8.995399620797748"><ele>39.0</ele><time>2026-04-28T08:30:48.842Z</time></trkpt><trkpt lat="39.36205152295743" lon="8.995318589466937"><ele>39.0</ele><time>2026-04-28T08:30:49.842Z</time></trkpt><trkpt lat="39.36210339294007" lon="8.99520898840952"><ele>39.0</ele><time>2026-04-28T08:30:51.842Z</time></trkpt><trkpt lat="39.36215379389489" lon="8.995126547908804"><ele>39.0</ele><time>2026-04-28T08:30:54.842Z</time></trkpt><trkpt lat="39.36215540682265" lon="8.995038976728623"><ele>39.0</ele><time>2026-04-28T08:31:00.84Z</time></trkpt><trkpt lat="39.362107157040086" lon="8.99514313386264"><ele>39.0</ele><time>2026-04-28T08:31:11.84Z</time></trkpt><trkpt lat="39.362058718498396" lon="8.99523775870186"><ele>39.0</ele><time>2026-04-28T08:31:12.84Z</time></trkpt><trkpt lat="39.36196105672201" lon="8.995362495063535"><ele>39.0</ele><time>2026-04-28T08:31:14.84Z</time></trkpt><trkpt lat="39.36191643753539" lon="8.995426731687774"><ele>39.0</ele><time>2026-04-28T08:31:15.84Z</time></trkpt><trkpt lat="39.36183417414817" lon="8.995514391422867"><ele>39.0</ele><time>2026-04-28T08:31:17.84Z</time></trkpt><trkpt lat="39.36183726247508" lon="8.99560646106213"><ele>39.0</ele><time>2026-04-28T08:31:23.84Z</time></trkpt><trkpt lat="39.36173124564661" lon="8.995695936629543"><ele>39.0</ele><time>2026-04-28T08:31:25.84Z</time></trkpt><trkpt lat="39.36179486402163" lon="8.995639365112119"><ele>39.0</ele><time>2026-04-28T08:31:35.84Z</time></trkpt><trkpt lat="39.36186216799966" lon="8.995606937369587"><ele>39.0</ele><time>2026-04-28T08:31:39.84Z</time></trkpt><trkpt lat="39.36192019740344" lon="8.995524321487336"><ele>39.0</ele><time>2026-04-28T08:31:42.84Z</time></trkpt><trkpt lat="39.361957060294635" lon="8.99544947385537"><ele>39.0</ele><time>2026-04-28T08:31:44.84Z</time></trkpt><trkpt lat="39.362000406448516" lon="8.995357541962946"><ele>39.0</ele><time>2026-04-28T08:31:47.84Z</time></trkpt><trkpt lat="39.36204039840857" lon="8.995292474605474"><ele>39.0</ele><time>2026-04-28T08:31:49.84Z</time></trkpt><trkpt lat="39.36208483145504" lon="8.995205755979757"><ele>39.0</ele><time>2026-04-28T08:31:52.84Z</time></trkpt><trkpt lat="39.3621264236738" lon="8.995118388149882"><ele>39.0</ele><time>2026-04-28T08:31:55.84Z</time></trkpt><trkpt lat="39.362158092454635" lon="8.995036856038038"><ele>39.0</ele><time>2026-04-28T08:31:59.84Z</time></trkpt><trkpt lat="39.36219356317919" lon="8.994963298401538"><ele>39.0</ele><time>2026-04-28T08:32:10.84Z</time></trkpt><trkpt lat="39.36215227979254" lon="8.995053874328757"><ele>39.0</ele><time>2026-04-28T08:32:19.84Z</time></trkpt><trkpt lat="39.362078922373136" lon="8.995216768020118"><ele>39.0</ele><time>2026-04-28T08:32:21.84Z</time></trkpt><trkpt lat="39.36201825216902" lon="8.99535189067326"><ele>39.0</ele><time>2026-04-28T08:32:23.84Z</time></trkpt><trkpt lat="39.36192984833405" lon="8.995470688670215"><ele>39.0</ele><time>2026-04-28T08:32:25.84Z</time></trkpt><trkpt lat="39.36186619661111" lon="8.995585210453717"><ele>39.0</ele><time>2026-04-28T08:32:27.84Z</time></trkpt><trkpt lat="39.36181259251425" lon="8.99563830222873"><ele>39.0</ele><time>2026-04-28T08:32:30.84Z</time></trkpt><trkpt lat="39.361748311787544" lon="8.99571876810555"><ele>39.0</ele><time>2026-04-28T08:32:35.84Z</time></trkpt><trkpt lat="39.361657648043675" lon="8.995843511137286"><ele>39.0</ele><time>2026-04-28T08:32:37.84Z</time></trkpt><trkpt lat="39.36153434859265" lon="8.995817708174105"><ele>39.0</ele><time>2026-04-28T08:32:39.84Z</time></trkpt><trkpt lat="39.36143971560337" lon="8.995827598976392"><ele>38.4</ele><time>2026-04-28T08:32:40.84Z</time></trkpt><trkpt lat="39.36132792279989" lon="8.99584265800202"><ele>37.8</ele><time>2026-04-28T08:32:41.84Z</time></trkpt><trkpt lat="39.36121850053486" lon="8.99586238887068"><ele>37.2</ele><time>2026-04-28T08:32:42.84Z</time></trkpt><trkpt lat="39.361120900634226" lon="8.9958713846765"><ele>36.6</ele><time>2026-04-28T08:32:43.84Z</time></trkpt><trkpt lat="39.36103538877086" lon="8.995865865223207"><ele>36.0</ele><time>2026-04-28T08:32:44.84Z</time></trkpt><trkpt lat="39.360956239063434" lon="8.99584117070983"><ele>36.2</ele><time>2026-04-28T08:32:46.84Z</time></trkpt><trkpt lat="39.360943639882265" lon="8.995722192849579"><ele>36.400000000000006</ele><time>2026-04-28T08:33:07.83Z</time></trkpt><trkpt lat="39.36097765227637" lon="8.995597382312994"><ele>36.6</ele><time>2026-04-28T08:33:09.829Z</time></trkpt><trkpt lat="39.361020406087974" lon="8.99549991726301"><ele>36.800000000000004</ele><time>2026-04-28T08:33:10.829Z</time></trkpt><trkpt lat="39.3610477043099" lon="8.99542364766785"><ele>37.0</ele><time>2026-04-28T08:33:11.829Z</time></trkpt><trkpt lat="39.36107577387216" lon="8.995267630245486"><ele>37.0</ele><time>2026-04-28T08:33:13.829Z</time></trkpt><trkpt lat="39.361123807525516" lon="8.995181963157135"><ele>37.0</ele><time>2026-04-28T08:33:15.828Z</time></trkpt><trkpt lat="39.361151580468125" lon="8.995095463281235"><ele>37.0</ele><time>2026-04-28T08:33:33.826Z</time></trkpt><trkpt lat="39.36117387572348" lon="8.994945189233304"><ele>37.0</ele><time>2026-04-28T08:33:35.826Z</time></trkpt><trkpt lat="39.361195744743185" lon="8.994857688752562"><ele>37.0</ele><time>2026-04-28T08:33:36.826Z</time></trkpt><trkpt lat="39.361219932178564" lon="8.994770592958663"><ele>37.0</ele><time>2026-04-28T08:33:37.826Z</time></trkpt><trkpt lat="39.361253015731826" lon="8.994647350200689"><ele>37.0</ele><time>2026-04-28T08:33:39.826Z</time></trkpt><trkpt lat="39.36133807935753" lon="8.994685904008053"><ele>37.0</ele><time>2026-04-28T08:33:42.826Z</time></trkpt><trkpt lat="39.361380479839404" lon="8.994832384428424"><ele>37.0</ele><time>2026-04-28T08:33:44.826Z</time></trkpt><trkpt lat="39.361419254552736" lon="8.99492745869466"><ele>37.0</ele><time>2026-04-28T08:33:45.826Z</time></trkpt><trkpt lat="39.361462833583836" lon="8.995027639849681"><ele>37.0</ele><time>2026-04-28T08:33:46.826Z</time></trkpt><trkpt lat="39.36149881664741" lon="8.995144126049803"><ele>37.5</ele><time>2026-04-28T08:33:47.826Z</time></trkpt><trkpt lat="39.36155048895175" lon="8.99526491180402"><ele>38.0</ele><time>2026-04-28T08:33:48.825Z</time></trkpt><trkpt lat="39.361601661092756" lon="8.995392558847021"><ele>38.5</ele><time>2026-04-28T08:33:49.825Z</time></trkpt><trkpt lat="39.361662177024236" lon="8.99552184756932"><ele>39.0</ele><time>2026-04-28T08:33:50.825Z</time></trkpt><trkpt lat="39.36173077041198" lon="8.995651809646132"><ele>39.0</ele><time>2026-04-28T08:33:51.825Z</time></trkpt><trkpt lat="39.36180161479816" lon="8.995777210799995"><ele>39.0</ele><time>2026-04-28T08:33:52.825Z</time></trkpt><trkpt lat="39.36187654257109" lon="8.995891628139864"><ele>39.0</ele><time>2026-04-28T08:33:53.825Z</time></trkpt><trkpt lat="39.36195992628911" lon="8.995989265682978"><ele>39.0</ele><time>2026-04-28T08:33:54.825Z</time></trkpt><trkpt lat="39.36205483661344" lon="8.996070438874298"><ele>38.8</ele><time>2026-04-28T08:33:55.825Z</time></trkpt><trkpt lat="39.36215845045696" lon="8.996137977848894"><ele>38.599999999999994</ele><time>2026-04-28T08:33:56.825Z</time></trkpt><trkpt lat="39.362258199567265" lon="8.996194744720784"><ele>38.4</ele><time>2026-04-28T08:33:57.825Z</time></trkpt><trkpt lat="39.36235095770636" lon="8.996243232156571"><ele>38.199999999999996</ele><time>2026-04-28T08:33:58.825Z</time></trkpt><trkpt lat="39.36244057818769" lon="8.996292679793312"><ele>38.0</ele><time>2026-04-28T08:33:59.825Z</time></trkpt><trkpt lat="39.36252753034098" lon="8.996345862137948"><ele>38.0</ele><time>2026-04-28T08:34:00.825Z</time></trkpt><trkpt lat="39.36261716431554" lon="8.996407436892063"><ele>38.0</ele><time>2026-04-28T08:34:01.825Z</time></trkpt><trkpt lat="39.362698386923284" lon="8.996488561241268"><ele>38.0</ele><time>2026-04-28T08:34:02.825Z</time></trkpt><trkpt lat="39.36276229086242" lon="8.996584543418452"><ele>38.0</ele><time>2026-04-28T08:34:03.825Z</time></trkpt><trkpt lat="39.362808111004156" lon="8.996694720449748"><ele>38.0</ele><time>2026-04-28T08:34:04.825Z</time></trkpt><trkpt lat="39.362837413970006" lon="8.996816113821316"><ele>38.0</ele><time>2026-04-28T08:34:05.825Z</time></trkpt><trkpt lat="39.362857815759696" lon="8.996950497049669"><ele>38.0</ele><time>2026-04-28T08:34:06.825Z</time></trkpt><trkpt lat="39.36286652144196" lon="8.997091976001256"><ele>38.0</ele><time>2026-04-28T08:34:07.825Z</time></trkpt><trkpt lat="39.362863458618186" lon="8.997228808869624"><ele>38.0</ele><time>2026-04-28T08:34:08.825Z</time></trkpt><trkpt lat="39.362861683356144" lon="8.99736839370639"><ele>38.0</ele><time>2026-04-28T08:34:09.825Z</time></trkpt><trkpt lat="39.36286170535434" lon="8.997487581653104"><ele>38.5</ele><time>2026-04-28T08:34:10.825Z</time></trkpt><trkpt lat="39.362858860276134" lon="8.997595878266965"><ele>39.0</ele><time>2026-04-28T08:34:11.825Z</time></trkpt><trkpt lat="39.36285813595932" lon="8.997691546827724"><ele>39.5</ele><time>2026-04-28T08:34:12.825Z</time></trkpt><trkpt lat="39.362861405093696" lon="8.997798024165421"><ele>40.0</ele><time>2026-04-28T08:34:13.825Z</time></trkpt><trkpt lat="39.362872860297074" lon="8.997921531663925"><ele>40.5</ele><time>2026-04-28T08:34:14.825Z</time></trkpt><trkpt lat="39.36287302896331" lon="8.998042722241985"><ele>41.0</ele><time>2026-04-28T08:34:15.825Z</time></trkpt><trkpt lat="39.36286445738963" lon="8.998168039691844"><ele>41.0</ele><time>2026-04-28T08:34:16.825Z</time></trkpt><trkpt lat="39.36284657165984" lon="8.998279328542703"><ele>41.0</ele><time>2026-04-28T08:34:17.825Z</time></trkpt><trkpt lat="39.36282366087757" lon="8.99838578487596"><ele>41.0</ele><time>2026-04-28T08:34:18.825Z</time></trkpt><trkpt lat="39.36278863047901" lon="8.998484765148262"><ele>41.0</ele><time>2026-04-28T08:34:19.825Z</time></trkpt><trkpt lat="39.36273817958371" lon="8.998579241836927"><ele>41.0</ele><time>2026-04-28T08:34:20.825Z</time></trkpt><trkpt lat="39.36267291470939" lon="8.998671979985797"><ele>41.0</ele><time>2026-04-28T08:34:21.825Z</time></trkpt><trkpt lat="39.362595885347716" lon="8.998759990729871"><ele>40.5</ele><time>2026-04-28T08:34:22.825Z</time></trkpt><trkpt lat="39.36251103630381" lon="8.998849844472609"><ele>40.0</ele><time>2026-04-28T08:34:23.825Z</time></trkpt><trkpt lat="39.362416742421125" lon="8.998942062248776"><ele>39.5</ele><time>2026-04-28T08:34:24.825Z</time></trkpt><trkpt lat="39.36231939608997" lon="8.999040336587292"><ele>39.0</ele><time>2026-04-28T08:34:25.825Z</time></trkpt><trkpt lat="39.36221762307065" lon="8.999150634146805"><ele>39.0</ele><time>2026-04-28T08:34:26.825Z</time></trkpt><trkpt lat="39.362111033376245" lon="8.999258917898716"><ele>39.0</ele><time>2026-04-28T08:34:27.825Z</time></trkpt><trkpt lat="39.362000914072226" lon="8.99937203628136"><ele>39.0</ele><time>2026-04-28T08:34:28.825Z</time></trkpt><trkpt lat="39.36189390430222" lon="8.999494133211877"><ele>39.0</ele><time>2026-04-28T08:34:29.825Z</time></trkpt><trkpt lat="39.36179463144294" lon="8.999629295540013"><ele>39.0</ele><time>2026-04-28T08:34:30.825Z</time></trkpt><trkpt lat="39.36170924347949" lon="8.999774273121314"><ele>39.0</ele><time>2026-04-28T08:34:31.825Z</time></trkpt><trkpt lat="39.36163126017377" lon="8.999928894881716"><ele>39.0</ele><time>2026-04-28T08:34:32.825Z</time></trkpt><trkpt lat="39.36155375826555" lon="9.000095162441847"><ele>39.0</ele><time>2026-04-28T08:34:33.825Z</time></trkpt><trkpt lat="39.36148165503503" lon="9.000263597944183"><ele>39.0</ele><time>2026-04-28T08:34:34.825Z</time></trkpt><trkpt lat="39.36140959778341" lon="9.000437090306542"><ele>39.0</ele><time>2026-04-28T08:34:35.825Z</time></trkpt><trkpt lat="39.361337325046726" lon="9.000613640980319"><ele>39.0</ele><time>2026-04-28T08:34:36.825Z</time></trkpt><trkpt lat="39.36126313139878" lon="9.000792943816492"><ele>39.5</ele><time>2026-04-28T08:34:37.825Z</time></trkpt><trkpt lat="39.36119043402542" lon="9.00097669067561"><ele>40.0</ele><time>2026-04-28T08:34:38.825Z</time></trkpt><trkpt lat="39.36112302032671" lon="9.00114554679083"><ele>40.5</ele><time>2026-04-28T08:34:39.825Z</time></trkpt><trkpt lat="39.361060414296425" lon="9.001308150148072"><ele>41.0</ele><time>2026-04-28T08:34:40.825Z</time></trkpt><trkpt lat="39.36099992808226" lon="9.00145561321525"><ele>41.0</ele><time>2026-04-28T08:34:41.825Z</time></trkpt><trkpt lat="39.36094543334097" lon="9.001585664630332"><ele>41.0</ele><time>2026-04-28T08:34:42.825Z</time></trkpt><trkpt lat="39.360902339898175" lon="9.001684695798328"><ele>41.0</ele><time>2026-04-28T08:34:43.825Z</time></trkpt><trkpt lat="39.36084814986843" lon="9.001762748473956"><ele>41.0</ele><time>2026-04-28T08:34:44.825Z</time></trkpt><trkpt lat="39.360763365299974" lon="9.001835749269423"><ele>41.0</ele><time>2026-04-28T08:34:45.825Z</time></trkpt><trkpt lat="39.36067534344807" lon="9.001898223094281"><ele>41.166666666666664</ele><time>2026-04-28T08:34:46.825Z</time></trkpt><trkpt lat="39.36060773767307" lon="9.001960771787939"><ele>41.33333333333333</ele><time>2026-04-28T08:34:47.825Z</time></trkpt><trkpt lat="39.36054587002475" lon="9.002045584332505"><ele>41.5</ele><time>2026-04-28T08:34:48.825Z</time></trkpt><trkpt lat="39.36049171983489" lon="9.002132532706375"><ele>41.666666666666664</ele><time>2026-04-28T08:34:49.825Z</time></trkpt><trkpt lat="39.36043985227215" lon="9.00221641361995"><ele>41.833333333333336</ele><time>2026-04-28T08:34:50.825Z</time></trkpt><trkpt lat="39.360389761793854" lon="9.002315448432997"><ele>42.0</ele><time>2026-04-28T08:34:51.825Z</time></trkpt><trkpt lat="39.3603469628521" lon="9.002420371579827"><ele>42.0</ele><time>2026-04-28T08:34:52.825Z</time></trkpt><trkpt lat="39.36030700869799" lon="9.002541445358519"><ele>42.0</ele><time>2026-04-28T08:34:53.825Z</time></trkpt><trkpt lat="39.36026644785694" lon="9.002665206281815"><ele>42.0</ele><time>2026-04-28T08:34:54.825Z</time></trkpt><trkpt lat="39.360220967839076" lon="9.002787034892606"><ele>42.0</ele><time>2026-04-28T08:34:55.825Z</time></trkpt><trkpt lat="39.3601783754987" lon="9.002894385991484"><ele>42.0</ele><time>2026-04-28T08:34:56.825Z</time></trkpt><trkpt lat="39.36012520320029" lon="9.002985320978445"><ele>42.0</ele><time>2026-04-28T08:34:57.825Z</time></trkpt><trkpt lat="39.36005697185164" lon="9.003068765562787"><ele>42.0</ele><time>2026-04-28T08:34:58.825Z</time></trkpt><trkpt lat="39.35998165356363" lon="9.0031526278428"><ele>42.0</ele><time>2026-04-28T08:34:59.825Z</time></trkpt><trkpt lat="39.35990023204001" lon="9.003245804537675"><ele>42.0</ele><time>2026-04-28T08:35:00.825Z</time></trkpt><trkpt lat="39.35982486850126" lon="9.003330083666585"><ele>42.0</ele><time>2026-04-28T08:35:01.825Z</time></trkpt><trkpt lat="39.35975123626006" lon="9.003400268568605"><ele>42.2</ele><time>2026-04-28T08:35:02.825Z</time></trkpt><trkpt lat="39.35968504164172" lon="9.003471641068055"><ele>42.400000000000006</ele><time>2026-04-28T08:35:03.825Z</time></trkpt><trkpt lat="39.35962468989295" lon="9.003537262812433"><ele>42.599999999999994</ele><time>2026-04-28T08:35:04.825Z</time></trkpt><trkpt lat="39.359571887174006" lon="9.003587579333074"><ele>42.8</ele><time>2026-04-28T08:35:05.825Z</time></trkpt><trkpt lat="39.359479853860705" lon="9.003657650966531"><ele>43.0</ele><time>2026-04-28T08:35:07.825Z</time></trkpt><trkpt lat="39.35938225237664" lon="9.003746291257567"><ele>43.0</ele><time>2026-04-28T08:35:09.823Z</time></trkpt><trkpt lat="39.3592798610485" lon="9.003850930357025"><ele>43.0</ele><time>2026-04-28T08:35:11.823Z</time></trkpt><trkpt lat="39.35921857299173" lon="9.00392443161716"><ele>43.0</ele><time>2026-04-28T08:35:12.822Z</time></trkpt><trkpt lat="39.35915978581604" lon="9.00400318365466"><ele>43.0</ele><time>2026-04-28T08:35:13.822Z</time></trkpt><trkpt lat="39.35909707076194" lon="9.004089236958627"><ele>43.0</ele><time>2026-04-28T08:35:14.822Z</time></trkpt><trkpt lat="39.35903337506545" lon="9.00417687349573"><ele>43.0</ele><time>2026-04-28T08:35:15.822Z</time></trkpt><trkpt lat="39.358963710007615" lon="9.004263214149523"><ele>43.0</ele><time>2026-04-28T08:35:16.822Z</time></trkpt><trkpt lat="39.358894651897856" lon="9.004355434814283"><ele>43.0</ele><time>2026-04-28T08:35:17.823Z</time></trkpt><trkpt lat="39.35883412457503" lon="9.004434745371254"><ele>43.0</ele><time>2026-04-28T08:35:18.823Z</time></trkpt><trkpt lat="39.35878578927002" lon="9.004511536799145"><ele>43.0</ele><time>2026-04-28T08:35:19.823Z</time></trkpt><trkpt lat="39.35873608056672" lon="9.004593806350796"><ele>43.0</ele><time>2026-04-28T08:35:21.822Z</time></trkpt><trkpt lat="39.358650802012626" lon="9.004702834462076"><ele>43.16666666666667</ele><time>2026-04-28T08:35:47.822Z</time></trkpt><trkpt lat="39.35860033228156" lon="9.004774774018411"><ele>43.333333333333336</ele><time>2026-04-28T08:35:48.822Z</time></trkpt><trkpt lat="39.358539458935454" lon="9.004836108708524"><ele>43.5</ele><time>2026-04-28T08:35:49.822Z</time></trkpt><trkpt lat="39.35847946567955" lon="9.004901703590283"><ele>43.666666666666664</ele><time>2026-04-28T08:35:50.822Z</time></trkpt><trkpt lat="39.358411223718825" lon="9.004965726738213"><ele>43.83333333333333</ele><time>2026-04-28T08:35:51.822Z</time></trkpt><trkpt lat="39.358366774949424" lon="9.005074283707541"><ele>44.0</ele><time>2026-04-28T08:35:52.822Z</time></trkpt><trkpt lat="39.3583148979623" lon="9.00517012382345"><ele>43.5</ele><time>2026-04-28T08:35:53.822Z</time></trkpt><trkpt lat="39.358265615472554" lon="9.005266753868021"><ele>43.0</ele><time>2026-04-28T08:35:54.822Z</time></trkpt><trkpt lat="39.358231731275716" lon="9.005363170242743"><ele>42.5</ele><time>2026-04-28T08:35:55.822Z</time></trkpt><trkpt lat="39.35819260813673" lon="9.00544835399321"><ele>42.0</ele><time>2026-04-28T08:35:56.822Z</time></trkpt><trkpt lat="39.35814904007904" lon="9.005538347579472"><ele>41.5</ele><time>2026-04-28T08:35:57.822Z</time></trkpt><trkpt lat="39.35809739439196" lon="9.00564053889544"><ele>41.0</ele><time>2026-04-28T08:35:58.822Z</time></trkpt><trkpt lat="39.35803564407266" lon="9.005751810625133"><ele>41.25</ele><time>2026-04-28T08:35:59.822Z</time></trkpt><trkpt lat="39.35797968206211" lon="9.005858939460136"><ele>41.5</ele><time>2026-04-28T08:36:00.822Z</time></trkpt><trkpt lat="39.357917921991785" lon="9.005965560461814"><ele>41.75</ele><time>2026-04-28T08:36:01.822Z</time></trkpt><trkpt lat="39.357858229615026" lon="9.006108969675681"><ele>42.0</ele><time>2026-04-28T08:36:02.822Z</time></trkpt><trkpt lat="39.357763231360146" lon="9.006265825572784"><ele>42.0</ele><time>2026-04-28T08:36:03.822Z</time></trkpt><trkpt lat="39.357659974253" lon="9.006440613504303"><ele>42.0</ele><time>2026-04-28T08:36:04.822Z</time></trkpt><trkpt lat="39.35756808798116" lon="9.006619669501351"><ele>42.0</ele><time>2026-04-28T08:36:05.822Z</time></trkpt><trkpt lat="39.357657496393486" lon="9.006502175854765"><ele>42.0</ele><time>2026-04-28T08:36:06.822Z</time></trkpt><trkpt lat="39.35760891908319" lon="9.006615956572357"><ele>42.0</ele><time>2026-04-28T08:36:07.822Z</time></trkpt><trkpt lat="39.35755318299393" lon="9.006722879523059"><ele>42.0</ele><time>2026-04-28T08:36:08.822Z</time></trkpt><trkpt lat="39.35749140668763" lon="9.006820549176371"><ele>42.0</ele><time>2026-04-28T08:36:09.822Z</time></trkpt><trkpt lat="39.357438724983695" lon="9.006927118220478"><ele>42.0</ele><time>2026-04-28T08:36:10.822Z</time></trkpt><trkpt lat="39.357398328737304" lon="9.007045146351713"><ele>42.0</ele><time>2026-04-28T08:36:11.822Z</time></trkpt><trkpt lat="39.357340228386356" lon="9.007159851882099"><ele>42.0</ele><time>2026-04-28T08:36:12.822Z</time></trkpt><trkpt lat="39.35727643228811" lon="9.007275101552178"><ele>42.0</ele><time>2026-04-28T08:36:13.822Z</time></trkpt><trkpt lat="39.357212173637734" lon="9.007389141619823"><ele>42.0</ele><time>2026-04-28T08:36:14.822Z</time></trkpt><trkpt lat="39.35715196478627" lon="9.007505575895891"><ele>42.0</ele><time>2026-04-28T08:36:15.822Z</time></trkpt><trkpt lat="39.35709149775673" lon="9.007615664773255"><ele>41.6</ele><time>2026-04-28T08:36:16.822Z</time></trkpt><trkpt lat="39.35703372594586" lon="9.007730162867338"><ele>41.2</ele><time>2026-04-28T08:36:17.822Z</time></trkpt><trkpt lat="39.35697922882908" lon="9.007839982781249"><ele>40.8</ele><time>2026-04-28T08:36:18.822Z</time></trkpt><trkpt lat="39.356923475224015" lon="9.007953161082412"><ele>40.4</ele><time>2026-04-28T08:36:19.822Z</time></trkpt><trkpt lat="39.35687029932167" lon="9.008056810376289"><ele>40.0</ele><time>2026-04-28T08:36:20.822Z</time></trkpt><trkpt lat="39.356824148525" lon="9.008157239554976"><ele>40.0</ele><time>2026-04-28T08:36:21.822Z</time></trkpt><trkpt lat="39.35677514079519" lon="9.008256084676614"><ele>40.0</ele><time>2026-04-28T08:36:22.822Z</time></trkpt><trkpt lat="39.35672355273893" lon="9.008351944664884"><ele>40.0</ele><time>2026-04-28T08:36:23.822Z</time></trkpt><trkpt lat="39.356670490155636" lon="9.008438696434325"><ele>40.0</ele><time>2026-04-28T08:36:24.822Z</time></trkpt><trkpt lat="39.35661092107422" lon="9.008512727815683"><ele>40.0</ele><time>2026-04-28T08:36:25.822Z</time></trkpt><trkpt lat="39.356554980962855" lon="9.00860210010867"><ele>40.0</ele><time>2026-04-28T08:36:26.822Z</time></trkpt><trkpt lat="39.35648712052549" lon="9.008669237350464"><ele>40.2</ele><time>2026-04-28T08:36:27.822Z</time></trkpt><trkpt lat="39.356424054647526" lon="9.008751461145025"><ele>40.4</ele><time>2026-04-28T08:36:28.822Z</time></trkpt><trkpt lat="39.35635412683072" lon="9.008826670313235"><ele>40.599999999999994</ele><time>2026-04-28T08:36:29.822Z</time></trkpt><trkpt lat="39.356274850739204" lon="9.00890852492374"><ele>40.8</ele><time>2026-04-28T08:36:30.822Z</time></trkpt><trkpt lat="39.356195611024575" lon="9.008992413868148"><ele>41.0</ele><time>2026-04-28T08:36:31.822Z</time></trkpt><trkpt lat="39.35610337029322" lon="9.00908169855558"><ele>41.199999999999996</ele><time>2026-04-28T08:36:32.822Z</time></trkpt><trkpt lat="39.35603305709328" lon="9.00916968580259"><ele>41.4</ele><time>2026-04-28T08:36:33.822Z</time></trkpt><trkpt lat="39.35596511002477" lon="9.009260973658623"><ele>41.6</ele><time>2026-04-28T08:36:34.822Z</time></trkpt><trkpt lat="39.35590497692642" lon="9.00933610535297"><ele>41.8</ele><time>2026-04-28T08:36:35.822Z</time></trkpt><trkpt lat="39.35584538907912" lon="9.00941187719629"><ele>42.0</ele><time>2026-04-28T08:36:36.822Z</time></trkpt><trkpt lat="39.35578324096663" lon="9.009492296358522"><ele>42.0</ele><time>2026-04-28T08:36:37.822Z</time></trkpt><trkpt lat="39.35571705839207" lon="9.009572978359794"><ele>42.0</ele><time>2026-04-28T08:36:38.822Z</time></trkpt><trkpt lat="39.35564645718927" lon="9.009662690157773"><ele>42.0</ele><time>2026-04-28T08:36:39.822Z</time></trkpt><trkpt lat="39.35558568045925" lon="9.009736715389545"><ele>42.0</ele><time>2026-04-28T08:36:40.822Z</time></trkpt><trkpt lat="39.35552566975104" lon="9.009817223497334"><ele>42.0</ele><time>2026-04-28T08:36:41.822Z</time></trkpt><trkpt lat="39.35546248485289" lon="9.009892019041931"><ele>42.0</ele><time>2026-04-28T08:36:42.822Z</time></trkpt><trkpt lat="39.35540566231351" lon="9.009984798313466"><ele>41.8</ele><time>2026-04-28T08:36:43.822Z</time></trkpt><trkpt lat="39.35533445980664" lon="9.010073467662018"><ele>41.6</ele><time>2026-04-28T08:36:44.822Z</time></trkpt><trkpt lat="39.355261691760056" lon="9.010164896935713"><ele>41.4</ele><time>2026-04-28T08:36:45.822Z</time></trkpt><trkpt lat="39.35519441453507" lon="9.010245355122478"><ele>41.199999999999996</ele><time>2026-04-28T08:36:46.822Z</time></trkpt><trkpt lat="39.35512842876723" lon="9.010311053284791"><ele>41.0</ele><time>2026-04-28T08:36:47.822Z</time></trkpt><trkpt lat="39.35506528903249" lon="9.01038657258032"><ele>41.0</ele><time>2026-04-28T08:36:48.822Z</time></trkpt><trkpt lat="39.354994965671274" lon="9.010457352095804"><ele>41.0</ele><time>2026-04-28T08:36:49.822Z</time></trkpt><trkpt lat="39.35492448668643" lon="9.01051768674178"><ele>41.0</ele><time>2026-04-28T08:36:50.822Z</time></trkpt><trkpt lat="39.35485242596219" lon="9.010574686810205"><ele>41.0</ele><time>2026-04-28T08:36:51.822Z</time></trkpt><trkpt lat="39.35478815673233" lon="9.010639963981344"><ele>41.0</ele><time>2026-04-28T08:36:52.822Z</time></trkpt><trkpt lat="39.354718595142096" lon="9.010711262835397"><ele>41.0</ele><time>2026-04-28T08:36:53.822Z</time></trkpt><trkpt lat="39.3546490753891" lon="9.010768670640326"><ele>41.0</ele><time>2026-04-28T08:36:54.822Z</time></trkpt><trkpt lat="39.354574188823605" lon="9.010848555964788"><ele>41.0</ele><time>2026-04-28T08:36:55.822Z</time></trkpt><trkpt lat="39.3544920454966" lon="9.010919753510443"><ele>41.0</ele><time>2026-04-28T08:36:56.822Z</time></trkpt><trkpt lat="39.35440724192873" lon="9.011008180247327"><ele>41.0</ele><time>2026-04-28T08:36:57.822Z</time></trkpt><trkpt lat="39.35432754551865" lon="9.01108784212353"><ele>41.0</ele><time>2026-04-28T08:36:58.822Z</time></trkpt><trkpt lat="39.354254339655895" lon="9.011157722149179"><ele>41.0</ele><time>2026-04-28T08:36:59.822Z</time></trkpt><trkpt lat="39.35417844696191" lon="9.011230725439995"><ele>41.0</ele><time>2026-04-28T08:37:00.822Z</time></trkpt><trkpt lat="39.354102632612644" lon="9.011303520951111"><ele>41.0</ele><time>2026-04-28T08:37:01.822Z</time></trkpt><trkpt lat="39.35402803791827" lon="9.011374332022584"><ele>41.0</ele><time>2026-04-28T08:37:02.822Z</time></trkpt><trkpt lat="39.353952559141135" lon="9.011444561378596"><ele>41.0</ele><time>2026-04-28T08:37:03.822Z</time></trkpt><trkpt lat="39.3538751124408" lon="9.011519432261379"><ele>40.666666666666664</ele><time>2026-04-28T08:37:04.822Z</time></trkpt><trkpt lat="39.35380238562217" lon="9.011593151749432"><ele>40.33333333333333</ele><time>2026-04-28T08:37:05.822Z</time></trkpt><trkpt lat="39.35373423353376" lon="9.011657911192016"><ele>40.0</ele><time>2026-04-28T08:37:06.822Z</time></trkpt><trkpt lat="39.353667516899485" lon="9.01172358673462"><ele>39.666666666666664</ele><time>2026-04-28T08:37:07.822Z</time></trkpt><trkpt lat="39.353606488588014" lon="9.011782544613178"><ele>39.333333333333336</ele><time>2026-04-28T08:37:08.822Z</time></trkpt><trkpt lat="39.353552929355914" lon="9.011835530432977"><ele>39.0</ele><time>2026-04-28T08:37:09.822Z</time></trkpt><trkpt lat="39.35345383121966" lon="9.01192489046608"><ele>39.0</ele><time>2026-04-28T08:37:11.822Z</time></trkpt><trkpt lat="39.35334696785416" lon="9.012003906953078"><ele>39.0</ele><time>2026-04-28T08:37:13.822Z</time></trkpt><trkpt lat="39.35339068602986" lon="9.012201591895112"><ele>39.0</ele><time>2026-04-28T08:37:14.821Z</time></trkpt><trkpt lat="39.35338050392034" lon="9.012324304755012"><ele>39.0</ele><time>2026-04-28T08:37:15.82Z</time></trkpt><trkpt lat="39.353357070044694" lon="9.012450206385974"><ele>39.25</ele><time>2026-04-28T08:37:16.82Z</time></trkpt><trkpt lat="39.35334684423893" lon="9.012592681635496"><ele>39.5</ele><time>2026-04-28T08:37:17.821Z</time></trkpt><trkpt lat="39.35333239721626" lon="9.012738587286254"><ele>39.75</ele><time>2026-04-28T08:37:18.821Z</time></trkpt><trkpt lat="39.353320191714836" lon="9.012893837179316"><ele>40.0</ele><time>2026-04-28T08:37:19.821Z</time></trkpt><trkpt lat="39.35331136185733" lon="9.013051059475067"><ele>40.0</ele><time>2026-04-28T08:37:20.82Z</time></trkpt><trkpt lat="39.35331034467485" lon="9.013198646396676"><ele>40.0</ele><time>2026-04-28T08:37:21.82Z</time></trkpt><trkpt lat="39.35332427155298" lon="9.013346586070513"><ele>40.0</ele><time>2026-04-28T08:37:22.82Z</time></trkpt><trkpt lat="39.35335565271159" lon="9.01348935986351"><ele>40.0</ele><time>2026-04-28T08:37:23.82Z</time></trkpt><trkpt lat="39.35338613576894" lon="9.013648503132377"><ele>40.25</ele><time>2026-04-28T08:37:24.82Z</time></trkpt><trkpt lat="39.35342560124038" lon="9.013819217678469"><ele>40.5</ele><time>2026-04-28T08:37:25.82Z</time></trkpt><trkpt lat="39.35346258241672" lon="9.013995878076638"><ele>40.75</ele><time>2026-04-28T08:37:26.82Z</time></trkpt><trkpt lat="39.353495828334154" lon="9.014177702327975"><ele>41.0</ele><time>2026-04-28T08:37:27.82Z</time></trkpt><trkpt lat="39.35352631856108" lon="9.014359475882895"><ele>41.0</ele><time>2026-04-28T08:37:28.82Z</time></trkpt><trkpt lat="39.35355819586042" lon="9.014531016039873"><ele>41.0</ele><time>2026-04-28T08:37:29.82Z</time></trkpt><trkpt lat="39.35358844684435" lon="9.0146934522066"><ele>41.0</ele><time>2026-04-28T08:37:30.82Z</time></trkpt><trkpt lat="39.35361270109886" lon="9.014861523839715"><ele>41.0</ele><time>2026-04-28T08:37:31.82Z</time></trkpt><trkpt lat="39.353636826537766" lon="9.015024483497186"><ele>41.25</ele><time>2026-04-28T08:37:32.82Z</time></trkpt><trkpt lat="39.35365597795026" lon="9.01518626091066"><ele>41.5</ele><time>2026-04-28T08:37:33.82Z</time></trkpt><trkpt lat="39.35365603093308" lon="9.015349667077805"><ele>41.75</ele><time>2026-04-28T08:37:34.82Z</time></trkpt><trkpt lat="39.35364981207862" lon="9.015509372513286"><ele>42.0</ele><time>2026-04-28T08:37:35.82Z</time></trkpt><trkpt lat="39.353642783359696" lon="9.01567014011704"><ele>42.0</ele><time>2026-04-28T08:37:36.82Z</time></trkpt><trkpt lat="39.35364405586786" lon="9.015814501826837"><ele>42.0</ele><time>2026-04-28T08:37:37.82Z</time></trkpt><trkpt lat="39.35365147851397" lon="9.01595491729405"><ele>42.0</ele><time>2026-04-28T08:37:38.82Z</time></trkpt><trkpt lat="39.35366462366366" lon="9.016095934027142"><ele>42.0</ele><time>2026-04-28T08:37:39.82Z</time></trkpt><trkpt lat="39.35368501006849" lon="9.016237975084458"><ele>42.0</ele><time>2026-04-28T08:37:40.82Z</time></trkpt><trkpt lat="39.35371501483905" lon="9.016391605137905"><ele>41.5</ele><time>2026-04-28T08:37:41.82Z</time></trkpt><trkpt lat="39.35374968106632" lon="9.016552013624002"><ele>41.0</ele><time>2026-04-28T08:37:42.82Z</time></trkpt><trkpt lat="39.35377850279746" lon="9.016706911120304"><ele>40.5</ele><time>2026-04-28T08:37:43.82Z</time></trkpt><trkpt lat="39.35379907368898" lon="9.016869020762023"><ele>40.0</ele><time>2026-04-28T08:37:44.82Z</time></trkpt><trkpt lat="39.35381635745313" lon="9.01703636912495"><ele>40.0</ele><time>2026-04-28T08:37:45.82Z</time></trkpt><trkpt lat="39.35383791281991" lon="9.017211078807811"><ele>40.0</ele><time>2026-04-28T08:37:46.82Z</time></trkpt><trkpt lat="39.353858368913684" lon="9.017383613277104"><ele>40.0</ele><time>2026-04-28T08:37:47.82Z</time></trkpt><trkpt lat="39.35388258963288" lon="9.017560057193586"><ele>40.0</ele><time>2026-04-28T08:37:48.82Z</time></trkpt><trkpt lat="39.35390951937559" lon="9.017739080746258"><ele>40.25</ele><time>2026-04-28T08:37:49.82Z</time></trkpt><trkpt lat="39.35394153155373" lon="9.017921762052948"><ele>40.5</ele><time>2026-04-28T08:37:50.82Z</time></trkpt><trkpt lat="39.353972028957664" lon="9.018095791130115"><ele>40.75</ele><time>2026-04-28T08:37:51.82Z</time></trkpt><trkpt lat="39.35400783974351" lon="9.01826800945472"><ele>41.0</ele><time>2026-04-28T08:37:52.82Z</time></trkpt><trkpt lat="39.35403495223653" lon="9.018433086552418"><ele>41.0</ele><time>2026-04-28T08:37:53.82Z</time></trkpt><trkpt lat="39.35406118895211" lon="9.018600593854124"><ele>41.0</ele><time>2026-04-28T08:37:54.82Z</time></trkpt><trkpt lat="39.354070706757604" lon="9.018756174551418"><ele>41.0</ele><time>2026-04-28T08:37:55.82Z</time></trkpt><trkpt lat="39.354054865297066" lon="9.018909022482264"><ele>41.0</ele><time>2026-04-28T08:37:56.82Z</time></trkpt><trkpt lat="39.35403492948216" lon="9.019050047466422"><ele>41.0</ele><time>2026-04-28T08:37:57.82Z</time></trkpt><trkpt lat="39.35400688684215" lon="9.019178370855034"><ele>41.0</ele><time>2026-04-28T08:37:58.82Z</time></trkpt><trkpt lat="39.35393204617298" lon="9.019267419658478"><ele>41.0</ele><time>2026-04-28T08:37:59.82Z</time></trkpt><trkpt lat="39.35385058287903" lon="9.019349362351848"><ele>41.0</ele><time>2026-04-28T08:38:00.82Z</time></trkpt><trkpt lat="39.35375934753896" lon="9.019445238328018"><ele>41.0</ele><time>2026-04-28T08:38:01.82Z</time></trkpt><trkpt lat="39.353672516405204" lon="9.019565928401164"><ele>40.75</ele><time>2026-04-28T08:38:02.82Z</time></trkpt><trkpt lat="39.35359027978062" lon="9.019659470327872"><ele>40.5</ele><time>2026-04-28T08:38:03.82Z</time></trkpt><trkpt lat="39.35354866613273" lon="9.019804847519554"><ele>40.25</ele><time>2026-04-28T08:38:04.82Z</time></trkpt><trkpt lat="39.35350696371616" lon="9.019947371012742"><ele>40.0</ele><time>2026-04-28T08:38:05.82Z</time></trkpt><trkpt lat="39.35347935279685" lon="9.020113092763301"><ele>40.0</ele><time>2026-04-28T08:38:06.82Z</time></trkpt><trkpt lat="39.35345244748708" lon="9.020264509543287"><ele>40.0</ele><time>2026-04-28T08:38:07.82Z</time></trkpt><trkpt lat="39.35342043482637" lon="9.020416679595648"><ele>40.0</ele><time>2026-04-28T08:38:08.82Z</time></trkpt><trkpt lat="39.35335966439811" lon="9.020553524099155"><ele>40.0</ele><time>2026-04-28T08:38:09.82Z</time></trkpt><trkpt lat="39.35330027930281" lon="9.020661109279233"><ele>40.0</ele><time>2026-04-28T08:38:10.82Z</time></trkpt><trkpt lat="39.35322795779916" lon="9.020750663757262"><ele>40.0</ele><time>2026-04-28T08:38:11.82Z</time></trkpt><trkpt lat="39.35314402977391" lon="9.020826783352287"><ele>40.0</ele><time>2026-04-28T08:38:12.82Z</time></trkpt><trkpt lat="39.353049602221446" lon="9.020882695899735"><ele>40.0</ele><time>2026-04-28T08:38:13.82Z</time></trkpt><trkpt lat="39.35294902743114" lon="9.020938105314467"><ele>40.0</ele><time>2026-04-28T08:38:14.82Z</time></trkpt><trkpt lat="39.35284883429398" lon="9.0209937814578"><ele>39.833333333333336</ele><time>2026-04-28T08:38:15.82Z</time></trkpt><trkpt lat="39.35276765696346" lon="9.021057063508893"><ele>39.66666666666667</ele><time>2026-04-28T08:38:16.82Z</time></trkpt><trkpt lat="39.3527021746802" lon="9.021099531259837"><ele>39.5</ele><time>2026-04-28T08:38:18.82Z</time></trkpt><trkpt lat="39.35277324538201" lon="9.021017930448636"><ele>39.333333333333336</ele><time>2026-04-28T08:38:28.82Z</time></trkpt><trkpt lat="39.352844895630646" lon="9.020989156895258"><ele>39.166666666666664</ele><time>2026-04-28T08:38:29.82Z</time></trkpt><trkpt lat="39.352916721625995" lon="9.020954117266474"><ele>39.0</ele><time>2026-04-28T08:38:30.82Z</time></trkpt><trkpt lat="39.35300238889509" lon="9.020922343801441"><ele>39.2</ele><time>2026-04-28T08:38:31.82Z</time></trkpt><trkpt lat="39.35309241187495" lon="9.020883162526534"><ele>39.4</ele><time>2026-04-28T08:38:32.82Z</time></trkpt><trkpt lat="39.35318020459269" lon="9.020825665564908"><ele>39.6</ele><time>2026-04-28T08:38:33.82Z</time></trkpt><trkpt lat="39.35325821258162" lon="9.020741959263585"><ele>39.8</ele><time>2026-04-28T08:38:34.82Z</time></trkpt><trkpt lat="39.35332328724863" lon="9.020647136079484"><ele>40.0</ele><time>2026-04-28T08:38:35.82Z</time></trkpt><trkpt lat="39.3533896012473" lon="9.0205258684117"><ele>40.0</ele><time>2026-04-28T08:38:36.82Z</time></trkpt><trkpt lat="39.35343601869839" lon="9.020410094044312"><ele>40.0</ele><time>2026-04-28T08:38:37.82Z</time></trkpt><trkpt lat="39.35346112664203" lon="9.020308197723285"><ele>40.0</ele><time>2026-04-28T08:38:38.82Z</time></trkpt><trkpt lat="39.353481587874384" lon="9.02021903957494"><ele>40.0</ele><time>2026-04-28T08:38:40.82Z</time></trkpt><trkpt lat="39.353547575666795" lon="9.020186201463064"><ele>40.0</ele><time>2026-04-28T08:38:42.82Z</time></trkpt><trkpt lat="39.35364385623952" lon="9.020224217939157"><ele>40.0</ele><time>2026-04-28T08:38:44.82Z</time></trkpt><trkpt lat="39.3537140043889" lon="9.020220981571281"><ele>40.0</ele><time>2026-04-28T08:38:45.82Z</time></trkpt><trkpt lat="39.35378450002575" lon="9.02024292268102"><ele>40.0</ele><time>2026-04-28T08:38:46.82Z</time></trkpt><trkpt lat="39.35383760866222" lon="9.020295729879765"><ele>40.0</ele><time>2026-04-28T08:38:47.82Z</time></trkpt><trkpt lat="39.35391869145377" lon="9.020406567629626"><ele>40.0</ele><time>2026-04-28T08:38:49.82Z</time></trkpt><trkpt lat="39.353965984826736" lon="9.020465620721183"><ele>40.0</ele><time>2026-04-28T08:38:50.82Z</time></trkpt><trkpt lat="39.35401163408591" lon="9.02052851973608"><ele>40.0</ele><time>2026-04-28T08:38:51.82Z</time></trkpt><trkpt lat="39.35406582826876" lon="9.020589837047156"><ele>39.833333333333336</ele><time>2026-04-28T08:38:52.82Z</time></trkpt><trkpt lat="39.35411995296942" lon="9.020655430953425"><ele>39.66666666666667</ele><time>2026-04-28T08:38:53.82Z</time></trkpt><trkpt lat="39.35416002550087" lon="9.02072317009156"><ele>39.5</ele><time>2026-04-28T08:38:54.82Z</time></trkpt><trkpt lat="39.35420444326108" lon="9.020803728988376"><ele>39.333333333333336</ele><time>2026-04-28T08:38:55.82Z</time></trkpt><trkpt lat="39.35425658974965" lon="9.020880337189515"><ele>39.166666666666664</ele><time>2026-04-28T08:38:56.82Z</time></trkpt><trkpt lat="39.35432341448772" lon="9.020947327237291"><ele>39.0</ele><time>2026-04-28T08:38:57.82Z</time></trkpt><trkpt lat="39.354365534899074" lon="9.021019833292934"><ele>39.0</ele><time>2026-04-28T08:38:58.82Z</time></trkpt><trkpt lat="39.35443699376488" lon="9.02106699789243"><ele>39.0</ele><time>2026-04-28T08:38:59.82Z</time></trkpt><trkpt lat="39.354511375839635" lon="9.021152049696424"><ele>39.0</ele><time>2026-04-28T08:39:00.82Z</time></trkpt><trkpt lat="39.3545668193592" lon="9.021202881053943"><ele>39.0</ele><time>2026-04-28T08:39:01.82Z</time></trkpt><trkpt lat="39.354621722334585" lon="9.021247848682485"><ele>39.0</ele><time>2026-04-28T08:39:02.82Z</time></trkpt><trkpt lat="39.35467989986753" lon="9.021296243907384"><ele>39.0</ele><time>2026-04-28T08:39:03.82Z</time></trkpt><trkpt lat="39.35473708786245" lon="9.021344206925168"><ele>39.166666666666664</ele><time>2026-04-28T08:39:04.82Z</time></trkpt><trkpt lat="39.35479794228099" lon="9.021392415908712"><ele>39.333333333333336</ele><time>2026-04-28T08:39:05.82Z</time></trkpt><trkpt lat="39.354874316467686" lon="9.021443469415239"><ele>39.5</ele><time>2026-04-28T08:39:06.82Z</time></trkpt><trkpt lat="39.354960540114085" lon="9.02150501479963"><ele>39.66666666666667</ele><time>2026-04-28T08:39:07.82Z</time></trkpt><trkpt lat="39.35502883174126" lon="9.02155271604834"><ele>39.833333333333336</ele><time>2026-04-28T08:39:08.82Z</time></trkpt><trkpt lat="39.35510534516653" lon="9.021598548987596"><ele>40.0</ele><time>2026-04-28T08:39:09.82Z</time></trkpt><trkpt lat="39.35519161720584" lon="9.021632647452488"><ele>40.0</ele><time>2026-04-28T08:39:10.82Z</time></trkpt><trkpt lat="39.35528310358407" lon="9.021653310342751"><ele>40.0</ele><time>2026-04-28T08:39:11.82Z</time></trkpt><trkpt lat="39.35537679079005" lon="9.021679516177297"><ele>40.0</ele><time>2026-04-28T08:39:12.82Z</time></trkpt><trkpt lat="39.3554573565372" lon="9.021702307022524"><ele>40.0</ele><time>2026-04-28T08:39:13.82Z</time></trkpt><trkpt lat="39.355537270388986" lon="9.02172438841193"><ele>40.0</ele><time>2026-04-28T08:39:14.82Z</time></trkpt><trkpt lat="39.35560438204869" lon="9.021756227701509"><ele>40.0</ele><time>2026-04-28T08:39:15.82Z</time></trkpt><trkpt lat="39.35571284578373" lon="9.021815510339614"><ele>40.0</ele><time>2026-04-28T08:39:17.82Z</time></trkpt><trkpt lat="39.35577650661576" lon="9.021896779220349"><ele>40.0</ele><time>2026-04-28T08:39:19.82Z</time></trkpt><trkpt lat="39.3557614835461" lon="9.02200338887954"><ele>40.0</ele><time>2026-04-28T08:39:22.819Z</time></trkpt><trkpt lat="39.355700511381485" lon="9.022084289258666"><ele>40.0</ele><time>2026-04-28T08:39:23.819Z</time></trkpt><trkpt lat="39.35565197971049" lon="9.02215526399034"><ele>40.0</ele><time>2026-04-28T08:39:24.819Z</time></trkpt><trkpt lat="39.355590606052864" lon="9.022241944492565"><ele>40.0</ele><time>2026-04-28T08:39:25.819Z</time></trkpt><trkpt lat="39.355514196871425" lon="9.022339781315313"><ele>40.0</ele><time>2026-04-28T08:39:26.818Z</time></trkpt><trkpt lat="39.35544693376252" lon="9.022447812369471"><ele>40.0</ele><time>2026-04-28T08:39:27.819Z</time></trkpt><trkpt lat="39.35537392267905" lon="9.022574227607874"><ele>40.0</ele><time>2026-04-28T08:39:28.819Z</time></trkpt><trkpt lat="39.35529271379449" lon="9.022692734314086"><ele>40.0</ele><time>2026-04-28T08:39:29.819Z</time></trkpt><trkpt lat="39.355220691187725" lon="9.022806121545942"><ele>40.25</ele><time>2026-04-28T08:39:30.819Z</time></trkpt><trkpt lat="39.355150299373" lon="9.022939661428984"><ele>40.5</ele><time>2026-04-28T08:39:31.819Z</time></trkpt><trkpt lat="39.35507425632693" lon="9.02307633377724"><ele>40.75</ele><time>2026-04-28T08:39:32.818Z</time></trkpt><trkpt lat="39.35499256607415" lon="9.023204600128691"><ele>41.0</ele><time>2026-04-28T08:39:33.818Z</time></trkpt><trkpt lat="39.35490959649434" lon="9.023343786729631"><ele>41.0</ele><time>2026-04-28T08:39:34.818Z</time></trkpt><trkpt lat="39.35482950278838" lon="9.023488683129177"><ele>41.0</ele><time>2026-04-28T08:39:35.818Z</time></trkpt><trkpt lat="39.354751028973574" lon="9.023640527661144"><ele>41.0</ele><time>2026-04-28T08:39:36.818Z</time></trkpt><trkpt lat="39.354682984643595" lon="9.023775452338237"><ele>41.0</ele><time>2026-04-28T08:39:37.818Z</time></trkpt><trkpt lat="39.35463063269412" lon="9.023889279431488"><ele>41.0</ele><time>2026-04-28T08:39:38.818Z</time></trkpt><trkpt lat="39.35457403997702" lon="9.024012663633226"><ele>41.0</ele><time>2026-04-28T08:39:39.818Z</time></trkpt><trkpt lat="39.354514901319405" lon="9.024133511685037"><ele>41.0</ele><time>2026-04-28T08:39:40.818Z</time></trkpt><trkpt lat="39.35445709584127" lon="9.024260877301428"><ele>41.0</ele><time>2026-04-28T08:39:41.818Z</time></trkpt><trkpt lat="39.35440174159348" lon="9.02437981607211"><ele>41.0</ele><time>2026-04-28T08:39:42.818Z</time></trkpt><trkpt lat="39.354352413781534" lon="9.024484264437593"><ele>41.5</ele><time>2026-04-28T08:39:43.818Z</time></trkpt><trkpt lat="39.35429908848919" lon="9.024557177606429"><ele>42.0</ele><time>2026-04-28T08:39:44.818Z</time></trkpt><trkpt lat="39.35426810525424" lon="9.024641740926553"><ele>42.5</ele><time>2026-04-28T08:39:45.818Z</time></trkpt><trkpt lat="39.354242573426944" lon="9.024722949158667"><ele>43.0</ele><time>2026-04-28T08:39:46.818Z</time></trkpt><trkpt lat="39.35419906990548" lon="9.024789606059597"><ele>43.5</ele><time>2026-04-28T08:39:47.818Z</time></trkpt><trkpt lat="39.35423176286136" lon="9.02491637991632"><ele>44.0</ele><time>2026-04-28T08:39:48.818Z</time></trkpt><trkpt lat="39.35423146079591" lon="9.02501873758067"><ele>44.2</ele><time>2026-04-28T08:39:49.818Z</time></trkpt><trkpt lat="39.35423078323087" lon="9.025152401073342"><ele>44.400000000000006</ele><time>2026-04-28T08:39:50.818Z</time></trkpt><trkpt lat="39.35423491993873" lon="9.025286717668118"><ele>44.6</ele><time>2026-04-28T08:39:51.818Z</time></trkpt><trkpt lat="39.35423801676179" lon="9.025425073211025"><ele>44.8</ele><time>2026-04-28T08:39:52.818Z</time></trkpt><trkpt lat="39.354228932866874" lon="9.025566032949571"><ele>45.0</ele><time>2026-04-28T08:39:53.818Z</time></trkpt><trkpt lat="39.354244713184166" lon="9.025708678410066"><ele>45.2</ele><time>2026-04-28T08:39:54.818Z</time></trkpt><trkpt lat="39.35424318200825" lon="9.025850813904487"><ele>45.4</ele><time>2026-04-28T08:39:55.818Z</time></trkpt><trkpt lat="39.354271897375796" lon="9.025983589510787"><ele>45.599999999999994</ele><time>2026-04-28T08:39:56.818Z</time></trkpt><trkpt lat="39.35428355262096" lon="9.0261165291309"><ele>45.8</ele><time>2026-04-28T08:39:57.818Z</time></trkpt><trkpt lat="39.35429362400028" lon="9.026235290031986"><ele>46.0</ele><time>2026-04-28T08:39:58.818Z</time></trkpt><trkpt lat="39.35431587629278" lon="9.026357104792796"><ele>46.0</ele><time>2026-04-28T08:39:59.818Z</time></trkpt><trkpt lat="39.35435034370455" lon="9.026478263773859"><ele>46.0</ele><time>2026-04-28T08:40:00.818Z</time></trkpt><trkpt lat="39.354394105273336" lon="9.026599979467473"><ele>46.0</ele><time>2026-04-28T08:40:01.818Z</time></trkpt><trkpt lat="39.35444961092073" lon="9.026720686415304"><ele>46.0</ele><time>2026-04-28T08:40:02.818Z</time></trkpt><trkpt lat="39.35451521086002" lon="9.026839491212916"><ele>46.0</ele><time>2026-04-28T08:40:03.818Z</time></trkpt><trkpt lat="39.354570699290505" lon="9.02694564861464"><ele>46.0</ele><time>2026-04-28T08:40:04.818Z</time></trkpt><trkpt lat="39.35464727968623" lon="9.027054240714191"><ele>46.0</ele><time>2026-04-28T08:40:05.818Z</time></trkpt><trkpt lat="39.35471494234803" lon="9.027165375341239"><ele>46.0</ele><time>2026-04-28T08:40:06.818Z</time></trkpt><trkpt lat="39.354781447695466" lon="9.027285437435102"><ele>46.0</ele><time>2026-04-28T08:40:07.818Z</time></trkpt><trkpt lat="39.35485649168261" lon="9.027413456514164"><ele>46.5</ele><time>2026-04-28T08:40:08.818Z</time></trkpt><trkpt lat="39.35491728232038" lon="9.027539115742833"><ele>47.0</ele><time>2026-04-28T08:40:09.818Z</time></trkpt><trkpt lat="39.35497779663536" lon="9.027668304374036"><ele>47.5</ele><time>2026-04-28T08:40:10.818Z</time></trkpt><trkpt lat="39.35503768196272" lon="9.027804416745967"><ele>48.0</ele><time>2026-04-28T08:40:11.818Z</time></trkpt><trkpt lat="39.35509525485692" lon="9.02794392700877"><ele>48.0</ele><time>2026-04-28T08:40:12.818Z</time></trkpt><trkpt lat="39.35514778574676" lon="9.028086369586855"><ele>48.0</ele><time>2026-04-28T08:40:13.818Z</time></trkpt><trkpt lat="39.355194700439064" lon="9.02822614343948"><ele>48.0</ele><time>2026-04-28T08:40:14.818Z</time></trkpt><trkpt lat="39.35523699467958" lon="9.028367598001928"><ele>48.0</ele><time>2026-04-28T08:40:15.818Z</time></trkpt><trkpt lat="39.35529373823243" lon="9.028514240412388"><ele>47.75</ele><time>2026-04-28T08:40:16.818Z</time></trkpt><trkpt lat="39.35534402222086" lon="9.02865972994783"><ele>47.5</ele><time>2026-04-28T08:40:17.818Z</time></trkpt><trkpt lat="39.355386147499516" lon="9.028800323646204"><ele>47.25</ele><time>2026-04-28T08:40:18.818Z</time></trkpt><trkpt lat="39.35541922847436" lon="9.028944351021048"><ele>47.0</ele><time>2026-04-28T08:40:19.818Z</time></trkpt><trkpt lat="39.35544842003157" lon="9.029090755887795"><ele>47.25</ele><time>2026-04-28T08:40:20.818Z</time></trkpt><trkpt lat="39.35547774542943" lon="9.02924299486781"><ele>47.5</ele><time>2026-04-28T08:40:21.818Z</time></trkpt><trkpt lat="39.3554795816952" lon="9.02939846306016"><ele>47.75</ele><time>2026-04-28T08:40:22.818Z</time></trkpt><trkpt lat="39.35549893772896" lon="9.029552847370534"><ele>48.0</ele><time>2026-04-28T08:40:23.818Z</time></trkpt><trkpt lat="39.35552492001653" lon="9.029704149995947"><ele>47.5</ele><time>2026-04-28T08:40:24.818Z</time></trkpt><trkpt lat="39.35555088090846" lon="9.02985694948649"><ele>47.0</ele><time>2026-04-28T08:40:25.818Z</time></trkpt><trkpt lat="39.35556332348502" lon="9.030008266746247"><ele>46.5</ele><time>2026-04-28T08:40:26.818Z</time></trkpt><trkpt lat="39.355572816046" lon="9.03015878725312"><ele>46.0</ele><time>2026-04-28T08:40:27.818Z</time></trkpt><trkpt lat="39.355572407337206" lon="9.030317664621712"><ele>46.0</ele><time>2026-04-28T08:40:28.818Z</time></trkpt><trkpt lat="39.35556726231991" lon="9.030479479742786"><ele>46.0</ele><time>2026-04-28T08:40:29.818Z</time></trkpt><trkpt lat="39.35554866731877" lon="9.030648429126174"><ele>46.0</ele><time>2026-04-28T08:40:30.818Z</time></trkpt><trkpt lat="39.35552598293699" lon="9.030823568344163"><ele>46.0</ele><time>2026-04-28T08:40:31.818Z</time></trkpt><trkpt lat="39.35549671952412" lon="9.031009329939964"><ele>46.5</ele><time>2026-04-28T08:40:32.818Z</time></trkpt><trkpt lat="39.35545965378112" lon="9.03118564651209"><ele>47.0</ele><time>2026-04-28T08:40:33.818Z</time></trkpt><trkpt lat="39.35541949811539" lon="9.031361881779777"><ele>47.5</ele><time>2026-04-28T08:40:34.818Z</time></trkpt><trkpt lat="39.35537748578711" lon="9.031535238553499"><ele>48.0</ele><time>2026-04-28T08:40:35.818Z</time></trkpt><trkpt lat="39.35534554402238" lon="9.031716452488885"><ele>48.0</ele><time>2026-04-28T08:40:36.818Z</time></trkpt><trkpt lat="39.35531832538867" lon="9.031888041842084"><ele>48.0</ele><time>2026-04-28T08:40:37.818Z</time></trkpt><trkpt lat="39.35530040420025" lon="9.032047439165517"><ele>48.0</ele><time>2026-04-28T08:40:38.818Z</time></trkpt><trkpt lat="39.35529443788493" lon="9.032209865579306"><ele>48.0</ele><time>2026-04-28T08:40:39.818Z</time></trkpt><trkpt lat="39.35530050110456" lon="9.032370277295348"><ele>48.25</ele><time>2026-04-28T08:40:40.818Z</time></trkpt><trkpt lat="39.35530884737849" lon="9.032536550242614"><ele>48.5</ele><time>2026-04-28T08:40:41.818Z</time></trkpt><trkpt lat="39.35530453953672" lon="9.032703044121947"><ele>48.75</ele><time>2026-04-28T08:40:42.818Z</time></trkpt><trkpt lat="39.355334128432524" lon="9.032873949248932"><ele>49.0</ele><time>2026-04-28T08:40:43.818Z</time></trkpt><trkpt lat="39.35535963185156" lon="9.033057388544613"><ele>49.0</ele><time>2026-04-28T08:40:44.818Z</time></trkpt><trkpt lat="39.35538682538222" lon="9.033241302497927"><ele>49.0</ele><time>2026-04-28T08:40:45.818Z</time></trkpt><trkpt lat="39.35541013332021" lon="9.033408702616715"><ele>49.0</ele><time>2026-04-28T08:40:46.818Z</time></trkpt><trkpt lat="39.35543308669982" lon="9.033561275989792"><ele>49.0</ele><time>2026-04-28T08:40:47.818Z</time></trkpt><trkpt lat="39.35545708428089" lon="9.033719826135535"><ele>49.0</ele><time>2026-04-28T08:40:48.818Z</time></trkpt><trkpt lat="39.35547153138844" lon="9.03387792711673"><ele>49.0</ele><time>2026-04-28T08:40:49.818Z</time></trkpt><trkpt lat="39.355494123664684" lon="9.034037320034729"><ele>49.0</ele><time>2026-04-28T08:40:50.818Z</time></trkpt><trkpt lat="39.35550969499024" lon="9.034169007759884"><ele>49.0</ele><time>2026-04-28T08:40:51.818Z</time></trkpt><trkpt lat="39.35551909627831" lon="9.034281376848659"><ele>49.0</ele><time>2026-04-28T08:40:52.818Z</time></trkpt><trkpt lat="39.35550344939797" lon="9.034364668540247"><ele>49.0</ele><time>2026-04-28T08:40:53.818Z</time></trkpt><trkpt lat="39.355499040889484" lon="9.034482491965111"><ele>49.0</ele><time>2026-04-28T08:40:55.818Z</time></trkpt><trkpt lat="39.35550230023884" lon="9.03466669126102"><ele>49.0</ele><time>2026-04-28T08:40:57.818Z</time></trkpt><trkpt lat="39.35551852026981" lon="9.034787838841927"><ele>49.0</ele><time>2026-04-28T08:40:58.818Z</time></trkpt><trkpt lat="39.355511407574866" lon="9.034916065815894"><ele>49.0</ele><time>2026-04-28T08:40:59.818Z</time></trkpt><trkpt lat="39.355502427824455" lon="9.035033078498447"><ele>49.2</ele><time>2026-04-28T08:41:00.818Z</time></trkpt><trkpt lat="39.35549472772616" lon="9.035155170277696"><ele>49.400000000000006</ele><time>2026-04-28T08:41:01.818Z</time></trkpt><trkpt lat="39.3554881317757" lon="9.035299541240716"><ele>49.6</ele><time>2026-04-28T08:41:02.818Z</time></trkpt><trkpt lat="39.35548483141893" lon="9.03544936387357"><ele>49.8</ele><time>2026-04-28T08:41:03.818Z</time></trkpt><trkpt lat="39.355473509733095" lon="9.03558904688514"><ele>50.0</ele><time>2026-04-28T08:41:04.818Z</time></trkpt><trkpt lat="39.355453858642015" lon="9.035739610678574"><ele>50.25</ele><time>2026-04-28T08:41:05.818Z</time></trkpt><trkpt lat="39.355423326893515" lon="9.03588899176274"><ele>50.5</ele><time>2026-04-28T08:41:06.818Z</time></trkpt><trkpt lat="39.355397051785594" lon="9.036040731663544"><ele>50.75</ele><time>2026-04-28T08:41:07.818Z</time></trkpt><trkpt lat="39.35537664132495" lon="9.036189081278232"><ele>51.0</ele><time>2026-04-28T08:41:08.818Z</time></trkpt><trkpt lat="39.35535452644722" lon="9.03632979524497"><ele>51.0</ele><time>2026-04-28T08:41:09.818Z</time></trkpt><trkpt lat="39.355334349867825" lon="9.036457867721108"><ele>51.0</ele><time>2026-04-28T08:41:10.818Z</time></trkpt><trkpt lat="39.35531950192027" lon="9.036570976222743"><ele>51.0</ele><time>2026-04-28T08:41:11.818Z</time></trkpt><trkpt lat="39.35530640974247" lon="9.036659395749695"><ele>51.0</ele><time>2026-04-28T08:41:12.818Z</time></trkpt><trkpt lat="39.35528705738589" lon="9.036798162623292"><ele>51.0</ele><time>2026-04-28T08:41:14.818Z</time></trkpt><trkpt lat="39.35527517183617" lon="9.036910394535363"><ele>51.0</ele><time>2026-04-28T08:41:17.818Z</time></trkpt><trkpt lat="39.355249871312076" lon="9.036987284710387"><ele>51.0</ele><time>2026-04-28T08:41:19.818Z</time></trkpt><trkpt lat="39.35524181774224" lon="9.037087247134433"><ele>51.0</ele><time>2026-04-28T08:41:21.818Z</time></trkpt><trkpt lat="39.355228409875835" lon="9.037215032135617"><ele>51.0</ele><time>2026-04-28T08:41:23.818Z</time></trkpt><trkpt lat="39.355212516594484" lon="9.037354877483793"><ele>51.0</ele><time>2026-04-28T08:41:25.818Z</time></trkpt><trkpt lat="39.35518682215256" lon="9.037510358570056"><ele>51.285714285714285</ele><time>2026-04-28T08:41:27.817Z</time></trkpt><trkpt lat="39.35517602521945" lon="9.037596179472992"><ele>51.57142857142857</ele><time>2026-04-28T08:41:28.817Z</time></trkpt><trkpt lat="39.355148616357624" lon="9.037675178671252"><ele>51.85714285714286</ele><time>2026-04-28T08:41:29.817Z</time></trkpt><trkpt lat="39.35514031454945" lon="9.037760633939614"><ele>52.14285714285714</ele><time>2026-04-28T08:41:30.816Z</time></trkpt><trkpt lat="39.35512698080151" lon="9.03784760380778"><ele>52.42857142857142</ele><time>2026-04-28T08:41:31.816Z</time></trkpt><trkpt lat="39.355111795737855" lon="9.037941842743464"><ele>52.714285714285715</ele><time>2026-04-28T08:41:32.816Z</time></trkpt><trkpt lat="39.35509450603245" lon="9.038043225692222"><ele>53.0</ele><time>2026-04-28T08:41:33.817Z</time></trkpt><trkpt lat="39.35507926593086" lon="9.038153546691404"><ele>53.0</ele><time>2026-04-28T08:41:34.817Z</time></trkpt><trkpt lat="39.35505954670573" lon="9.038268762064835"><ele>53.0</ele><time>2026-04-28T08:41:35.817Z</time></trkpt><trkpt lat="39.3550417567424" lon="9.038400452522456"><ele>53.0</ele><time>2026-04-28T08:41:36.816Z</time></trkpt><trkpt lat="39.355017207858765" lon="9.038541750657192"><ele>53.0</ele><time>2026-04-28T08:41:37.816Z</time></trkpt><trkpt lat="39.354994739696785" lon="9.03868849278588"><ele>53.0</ele><time>2026-04-28T08:41:38.817Z</time></trkpt><trkpt lat="39.35496226383953" lon="9.03882614780047"><ele>53.25</ele><time>2026-04-28T08:41:39.816Z</time></trkpt><trkpt lat="39.35493077789672" lon="9.038972643583632"><ele>53.5</ele><time>2026-04-28T08:41:40.816Z</time></trkpt><trkpt lat="39.35488855003996" lon="9.039128913173744"><ele>53.75</ele><time>2026-04-28T08:41:41.816Z</time></trkpt><trkpt lat="39.354845032710486" lon="9.039273763018459"><ele>54.0</ele><time>2026-04-28T08:41:42.816Z</time></trkpt><trkpt lat="39.35480347080204" lon="9.03942445979746"><ele>54.0</ele><time>2026-04-28T08:41:43.816Z</time></trkpt><trkpt lat="39.35476765387848" lon="9.039575390524105"><ele>54.0</ele><time>2026-04-28T08:41:44.816Z</time></trkpt><trkpt lat="39.354729970808044" lon="9.039741287148974"><ele>54.0</ele><time>2026-04-28T08:41:45.816Z</time></trkpt><trkpt lat="39.354705426123225" lon="9.039906660671248"><ele>54.0</ele><time>2026-04-28T08:41:46.816Z</time></trkpt><trkpt lat="39.354682578441036" lon="9.040072041472316"><ele>53.75</ele><time>2026-04-28T08:41:47.816Z</time></trkpt><trkpt lat="39.35464966265649" lon="9.040246999787955"><ele>53.5</ele><time>2026-04-28T08:41:48.816Z</time></trkpt><trkpt lat="39.35462826610521" lon="9.040418255193966"><ele>53.25</ele><time>2026-04-28T08:41:49.816Z</time></trkpt><trkpt lat="39.35460337347423" lon="9.040590523367326"><ele>53.0</ele><time>2026-04-28T08:41:50.816Z</time></trkpt><trkpt lat="39.354573661701316" lon="9.040764761375033"><ele>53.75</ele><time>2026-04-28T08:41:51.816Z</time></trkpt><trkpt lat="39.35453958105475" lon="9.040936787619211"><ele>54.5</ele><time>2026-04-28T08:41:52.816Z</time></trkpt><trkpt lat="39.35450240860839" lon="9.041102688192073"><ele>55.25</ele><time>2026-04-28T08:41:53.816Z</time></trkpt><trkpt lat="39.35446270069047" lon="9.04126013410292"><ele>56.0</ele><time>2026-04-28T08:41:54.816Z</time></trkpt><trkpt lat="39.35441582310583" lon="9.041406242540958"><ele>56.0</ele><time>2026-04-28T08:41:55.816Z</time></trkpt><trkpt lat="39.3543692211852" lon="9.04155211384982"><ele>56.0</ele><time>2026-04-28T08:41:56.816Z</time></trkpt><trkpt lat="39.35432106047404" lon="9.041691260141489"><ele>56.0</ele><time>2026-04-28T08:41:57.816Z</time></trkpt><trkpt lat="39.354262525092246" lon="9.04183657936103"><ele>56.0</ele><time>2026-04-28T08:41:58.816Z</time></trkpt><trkpt lat="39.35419842893462" lon="9.041981663519287"><ele>56.0</ele><time>2026-04-28T08:41:59.816Z</time></trkpt><trkpt lat="39.354141218824616" lon="9.04212083150062"><ele>56.0</ele><time>2026-04-28T08:42:00.816Z</time></trkpt><trkpt lat="39.354066841092454" lon="9.042261551440763"><ele>56.0</ele><time>2026-04-28T08:42:01.816Z</time></trkpt><trkpt lat="39.35400377544071" lon="9.042407052585364"><ele>56.0</ele><time>2026-04-28T08:42:02.816Z</time></trkpt><trkpt lat="39.35393195030558" lon="9.042546529264031"><ele>55.75</ele><time>2026-04-28T08:42:03.816Z</time></trkpt><trkpt lat="39.35387563708351" lon="9.042680691199724"><ele>55.5</ele><time>2026-04-28T08:42:04.816Z</time></trkpt><trkpt lat="39.35381998845774" lon="9.042809959418735"><ele>55.25</ele><time>2026-04-28T08:42:05.816Z</time></trkpt><trkpt lat="39.353771259883985" lon="9.042941579531076"><ele>55.0</ele><time>2026-04-28T08:42:06.816Z</time></trkpt><trkpt lat="39.35373783549783" lon="9.043081525802405"><ele>54.5</ele><time>2026-04-28T08:42:07.816Z</time></trkpt><trkpt lat="39.35370368414915" lon="9.043234835287668"><ele>54.0</ele><time>2026-04-28T08:42:08.816Z</time></trkpt><trkpt lat="39.353661140471345" lon="9.043381111331142"><ele>53.5</ele><time>2026-04-28T08:42:09.816Z</time></trkpt><trkpt lat="39.35362208257274" lon="9.043530296707594"><ele>53.0</ele><time>2026-04-28T08:42:10.816Z</time></trkpt><trkpt lat="39.353578269356156" lon="9.043679414609866"><ele>53.0</ele><time>2026-04-28T08:42:11.816Z</time></trkpt><trkpt lat="39.35352999064114" lon="9.043814527304571"><ele>53.0</ele><time>2026-04-28T08:42:12.816Z</time></trkpt><trkpt lat="39.35348720313236" lon="9.04392114245232"><ele>53.0</ele><time>2026-04-28T08:42:13.816Z</time></trkpt><trkpt lat="39.35346227326253" lon="9.044007801653741"><ele>53.0</ele><time>2026-04-28T08:42:14.816Z</time></trkpt><trkpt lat="39.35318113945527" lon="9.044393626729844"><ele>53.0</ele><time>2026-04-28T08:42:19.816Z</time></trkpt><trkpt lat="39.353482802264054" lon="9.043869447451435"><ele>53.0</ele><time>2026-04-28T08:42:20.816Z</time></trkpt><trkpt lat="39.353434200299844" lon="9.043719950562396"><ele>53.0</ele><time>2026-04-28T08:42:22.816Z</time></trkpt><trkpt lat="39.353411212011764" lon="9.043607428923021"><ele>53.0</ele><time>2026-04-28T08:42:23.816Z</time></trkpt><trkpt lat="39.35344895768718" lon="9.044909771767664"><ele>53.599999999999994</ele><time>2026-04-28T08:42:24.816Z</time></trkpt><trkpt lat="39.353455890346545" lon="9.045008696140298"><ele>54.199999999999996</ele><time>2026-04-28T08:42:26.816Z</time></trkpt><trkpt lat="39.35349888242212" lon="9.045149533455634"><ele>54.8</ele><time>2026-04-28T08:42:28.816Z</time></trkpt><trkpt lat="39.35352506322999" lon="9.045241923017292"><ele>55.4</ele><time>2026-04-28T08:42:29.816Z</time></trkpt><trkpt lat="39.35354757525365" lon="9.045350815326051"><ele>56.0</ele><time>2026-04-28T08:42:30.816Z</time></trkpt><trkpt lat="39.3535644443807" lon="9.045477843153463"><ele>56.0</ele><time>2026-04-28T08:42:31.816Z</time></trkpt><trkpt lat="39.35356845405173" lon="9.045612979607334"><ele>56.0</ele><time>2026-04-28T08:42:32.816Z</time></trkpt><trkpt lat="39.35355781007551" lon="9.045764498645365"><ele>56.0</ele><time>2026-04-28T08:42:33.816Z</time></trkpt><trkpt lat="39.353532569206955" lon="9.045924026412843"><ele>56.0</ele><time>2026-04-28T08:42:34.816Z</time></trkpt><trkpt lat="39.35351275736331" lon="9.046081906150057"><ele>57.0</ele><time>2026-04-28T08:42:35.816Z</time></trkpt><trkpt lat="39.35349461546522" lon="9.046241810178765"><ele>58.0</ele><time>2026-04-28T08:42:36.816Z</time></trkpt><trkpt lat="39.35347774577066" lon="9.046403808510977"><ele>59.0</ele><time>2026-04-28T08:42:37.816Z</time></trkpt><trkpt lat="39.353467216194446" lon="9.04657202750401"><ele>60.0</ele><time>2026-04-28T08:42:38.816Z</time></trkpt><trkpt lat="39.353476640032" lon="9.046731971535177"><ele>60.5</ele><time>2026-04-28T08:42:39.816Z</time></trkpt><trkpt lat="39.35348846093208" lon="9.046888142395753"><ele>61.0</ele><time>2026-04-28T08:42:40.816Z</time></trkpt><trkpt lat="39.35349854045777" lon="9.047053321844448"><ele>61.5</ele><time>2026-04-28T08:42:41.816Z</time></trkpt><trkpt lat="39.35350940134654" lon="9.047226972171147"><ele>62.0</ele><time>2026-04-28T08:42:42.816Z</time></trkpt><trkpt lat="39.35351739430473" lon="9.047405893138102"><ele>62.0</ele><time>2026-04-28T08:42:43.816Z</time></trkpt><trkpt lat="39.353525736364986" lon="9.04758599651703"><ele>62.0</ele><time>2026-04-28T08:42:44.816Z</time></trkpt><trkpt lat="39.353531169625874" lon="9.047777407645578"><ele>62.0</ele><time>2026-04-28T08:42:45.816Z</time></trkpt><trkpt lat="39.35351571244495" lon="9.047952750068006"><ele>62.0</ele><time>2026-04-28T08:42:46.816Z</time></trkpt><trkpt lat="39.35347317429046" lon="9.048118101798941"><ele>62.0</ele><time>2026-04-28T08:42:47.816Z</time></trkpt><trkpt lat="39.3534420647347" lon="9.048256450441901"><ele>62.0</ele><time>2026-04-28T08:42:48.816Z</time></trkpt><trkpt lat="39.353421451384314" lon="9.048395913613607"><ele>62.0</ele><time>2026-04-28T08:42:49.816Z</time></trkpt><trkpt lat="39.353429068391385" lon="9.048571734597711"><ele>62.0</ele><time>2026-04-28T08:42:50.816Z</time></trkpt><trkpt lat="39.35344872161432" lon="9.048741123472366"><ele>62.5</ele><time>2026-04-28T08:42:51.816Z</time></trkpt><trkpt lat="39.35345937634456" lon="9.048910553721793"><ele>63.0</ele><time>2026-04-28T08:42:52.816Z</time></trkpt><trkpt lat="39.3534832874745" lon="9.049060642184145"><ele>63.5</ele><time>2026-04-28T08:42:53.816Z</time></trkpt><trkpt lat="39.35350299439987" lon="9.049206128572923"><ele>64.0</ele><time>2026-04-28T08:42:54.816Z</time></trkpt><trkpt lat="39.35351275538804" lon="9.049344492365575"><ele>64.2</ele><time>2026-04-28T08:42:55.816Z</time></trkpt><trkpt lat="39.35352042764768" lon="9.049447127207541"><ele>64.4</ele><time>2026-04-28T08:42:56.816Z</time></trkpt><trkpt lat="39.353511818676346" lon="9.049544391286936"><ele>64.6</ele><time>2026-04-28T08:42:57.816Z</time></trkpt><trkpt lat="39.35344942149331" lon="9.049676972115073"><ele>64.8</ele><time>2026-04-28T08:42:59.816Z</time></trkpt><trkpt lat="39.35336461796779" lon="9.049763011924702"><ele>65.0</ele><time>2026-04-28T08:43:01.816Z</time></trkpt><trkpt lat="39.35323307182304" lon="9.049861028277984"><ele>65.0</ele><time>2026-04-28T08:43:03.816Z</time></trkpt><trkpt lat="39.353119798328855" lon="9.049843644570828"><ele>65.0</ele><time>2026-04-28T08:43:04.816Z</time></trkpt><trkpt lat="39.35300246137957" lon="9.049854043495033"><ele>65.0</ele><time>2026-04-28T08:43:05.816Z</time></trkpt><trkpt lat="39.352871127685844" lon="9.049895797982723"><ele>65.0</ele><time>2026-04-28T08:43:06.816Z</time></trkpt><trkpt lat="39.35272292169326" lon="9.049918627261437"><ele>65.0</ele><time>2026-04-28T08:43:07.816Z</time></trkpt><trkpt lat="39.352566081545376" lon="9.049942538009823"><ele>65.0</ele><time>2026-04-28T08:43:08.816Z</time></trkpt><trkpt lat="39.35240657866205" lon="9.049952461700876"><ele>65.0</ele><time>2026-04-28T08:43:09.816Z</time></trkpt><trkpt lat="39.35224405685328" lon="9.04998729946704"><ele>64.0</ele><time>2026-04-28T08:43:10.816Z</time></trkpt><trkpt lat="39.35207482511242" lon="9.05001933711623"><ele>63.0</ele><time>2026-04-28T08:43:11.816Z</time></trkpt><trkpt lat="39.351901804084314" lon="9.050047207410477"><ele>62.0</ele><time>2026-04-28T08:43:12.816Z</time></trkpt><trkpt lat="39.35172753652187" lon="9.050066071360105"><ele>62.0</ele><time>2026-04-28T08:43:13.816Z</time></trkpt><trkpt lat="39.3515564769545" lon="9.050094960114544"><ele>62.0</ele><time>2026-04-28T08:43:14.816Z</time></trkpt><trkpt lat="39.3513748278663" lon="9.050120842063743"><ele>62.0</ele><time>2026-04-28T08:43:15.816Z</time></trkpt><trkpt lat="39.351193755613366" lon="9.050146551930633"><ele>61.66666666666667</ele><time>2026-04-28T08:43:16.816Z</time></trkpt><trkpt lat="39.35100154949287" lon="9.05017606853185"><ele>61.33333333333333</ele><time>2026-04-28T08:43:17.816Z</time></trkpt><trkpt lat="39.3508154588652" lon="9.050204405241859"><ele>61.0</ele><time>2026-04-28T08:43:18.816Z</time></trkpt><trkpt lat="39.35062903405267" lon="9.050235769538423"><ele>59.666666666666664</ele><time>2026-04-28T08:43:19.816Z</time></trkpt><trkpt lat="39.35044043629072" lon="9.050266482757598"><ele>58.33333333333333</ele><time>2026-04-28T08:43:20.816Z</time></trkpt><trkpt lat="39.35025870491695" lon="9.050293948571708"><ele>57.0</ele><time>2026-04-28T08:43:21.816Z</time></trkpt><trkpt lat="39.350088663948966" lon="9.050319763999722"><ele>57.0</ele><time>2026-04-28T08:43:22.816Z</time></trkpt><trkpt lat="39.34992764437928" lon="9.050341850045116"><ele>57.0</ele><time>2026-04-28T08:43:23.816Z</time></trkpt><trkpt lat="39.349777220290974" lon="9.050356873989658"><ele>57.0</ele><time>2026-04-28T08:43:24.816Z</time></trkpt><trkpt lat="39.34962959177388" lon="9.050366165166396"><ele>57.25</ele><time>2026-04-28T08:43:25.816Z</time></trkpt><trkpt lat="39.34948786469588" lon="9.050358765671803"><ele>57.5</ele><time>2026-04-28T08:43:26.816Z</time></trkpt><trkpt lat="39.349344349418466" lon="9.050331956308577"><ele>57.75</ele><time>2026-04-28T08:43:27.816Z</time></trkpt><trkpt lat="39.34920019384994" lon="9.050294340536679"><ele>58.0</ele><time>2026-04-28T08:43:28.816Z</time></trkpt><trkpt lat="39.34905568985926" lon="9.050232567679117"><ele>58.0</ele><time>2026-04-28T08:43:29.816Z</time></trkpt><trkpt lat="39.34891395402179" lon="9.050157542651744"><ele>58.0</ele><time>2026-04-28T08:43:30.816Z</time></trkpt><trkpt lat="39.3487702249128" lon="9.050081630626151"><ele>58.0</ele><time>2026-04-28T08:43:31.815Z</time></trkpt><trkpt lat="39.348624308880495" lon="9.050003788068816"><ele>57.25</ele><time>2026-04-28T08:43:32.815Z</time></trkpt><trkpt lat="39.34848123975638" lon="9.049929876480292"><ele>56.5</ele><time>2026-04-28T08:43:33.815Z</time></trkpt><trkpt lat="39.34834915836779" lon="9.049865968649936"><ele>55.75</ele><time>2026-04-28T08:43:34.815Z</time></trkpt><trkpt lat="39.348237048001664" lon="9.049817805150242"><ele>55.0</ele><time>2026-04-28T08:43:35.815Z</time></trkpt><trkpt lat="39.348142823499124" lon="9.049782757838681"><ele>55.0</ele><time>2026-04-28T08:43:36.815Z</time></trkpt><trkpt lat="39.34808049371575" lon="9.049757725943985"><ele>55.0</ele><time>2026-04-28T08:43:37.815Z</time></trkpt><trkpt lat="39.34796665761622" lon="9.049740880190717"><ele>55.0</ele><time>2026-04-28T08:43:39.815Z</time></trkpt><trkpt lat="39.34792507832554" lon="9.04992621772991"><ele>55.0</ele><time>2026-04-28T08:43:40.815Z</time></trkpt><trkpt lat="39.347897168287226" lon="9.050014533906795"><ele>55.0</ele><time>2026-04-28T08:43:41.815Z</time></trkpt><trkpt lat="39.347899305081185" lon="9.050111137964937"><ele>56.0</ele><time>2026-04-28T08:43:42.815Z</time></trkpt><trkpt lat="39.3478843732443" lon="9.050211862211308"><ele>57.0</ele><time>2026-04-28T08:43:43.815Z</time></trkpt><trkpt lat="39.34789303375579" lon="9.050321749213426"><ele>58.0</ele><time>2026-04-28T08:43:44.814Z</time></trkpt><trkpt lat="39.347911759124536" lon="9.050454212818135"><ele>59.0</ele><time>2026-04-28T08:43:45.814Z</time></trkpt><trkpt lat="39.34793098961676" lon="9.050609178925782"><ele>60.0</ele><time>2026-04-28T08:43:46.814Z</time></trkpt><trkpt lat="39.34794262575945" lon="9.050766364855281"><ele>60.25</ele><time>2026-04-28T08:43:47.814Z</time></trkpt><trkpt lat="39.34795759420572" lon="9.050935520057138"><ele>60.5</ele><time>2026-04-28T08:43:48.814Z</time></trkpt><trkpt lat="39.34797425711227" lon="9.051110635653561"><ele>60.75</ele><time>2026-04-28T08:43:49.814Z</time></trkpt><trkpt lat="39.34799137441883" lon="9.051285253973978"><ele>61.0</ele><time>2026-04-28T08:43:50.814Z</time></trkpt><trkpt lat="39.348011053218436" lon="9.051449950700032"><ele>61.0</ele><time>2026-04-28T08:43:51.814Z</time></trkpt><trkpt lat="39.348027088131076" lon="9.05158598182898"><ele>60.99999999999999</ele><time>2026-04-28T08:43:52.814Z</time></trkpt><trkpt lat="39.348037435774714" lon="9.051688164431276"><ele>60.99999999999999</ele><time>2026-04-28T08:43:53.814Z</time></trkpt><trkpt lat="39.3480507262235" lon="9.051819749010255"><ele>61.0</ele><time>2026-04-28T08:43:55.814Z</time></trkpt><trkpt lat="39.34819862360717" lon="9.051875288003487"><ele>61.0</ele><time>2026-04-28T08:43:59.814Z</time></trkpt><trkpt lat="39.348278942621405" lon="9.05183989148996"><ele>61.0</ele><time>2026-04-28T08:44:00.814Z</time></trkpt><trkpt lat="39.3483684885588" lon="9.051788256207686"><ele>60.99999999999999</ele><time>2026-04-28T08:44:01.814Z</time></trkpt><trkpt lat="39.348454644016556" lon="9.051717282123096"><ele>60.99999999999999</ele><time>2026-04-28T08:44:02.814Z</time></trkpt><trkpt lat="39.34854668679131" lon="9.05162949673576"><ele>61.0</ele><time>2026-04-28T08:44:03.814Z</time></trkpt><trkpt lat="39.34864590690546" lon="9.051533312967173"><ele>61.0</ele><time>2026-04-28T08:44:04.814Z</time></trkpt><trkpt lat="39.3487572506699" lon="9.051428079631885"><ele>61.0</ele><time>2026-04-28T08:44:05.814Z</time></trkpt><trkpt lat="39.348873007962126" lon="9.051318688152183"><ele>61.0</ele><time>2026-04-28T08:44:06.814Z</time></trkpt><trkpt lat="39.34899090691077" lon="9.051204458294077"><ele>61.0</ele><time>2026-04-28T08:44:07.814Z</time></trkpt><trkpt lat="39.3491120140435" lon="9.051090057430699"><ele>61.0</ele><time>2026-04-28T08:44:08.814Z</time></trkpt><trkpt lat="39.3492379983364" lon="9.050983547686986"><ele>60.666666666666664</ele><time>2026-04-28T08:44:09.814Z</time></trkpt><trkpt lat="39.34937047811131" lon="9.050890002639145"><ele>60.33333333333333</ele><time>2026-04-28T08:44:10.814Z</time></trkpt><trkpt lat="39.34951232870022" lon="9.050810439947885"><ele>60.0</ele><time>2026-04-28T08:44:11.814Z</time></trkpt><trkpt lat="39.34965880881887" lon="9.050754467858631"><ele>59.0</ele><time>2026-04-28T08:44:12.814Z</time></trkpt><trkpt lat="39.349816671858505" lon="9.050714870374152"><ele>58.0</ele><time>2026-04-28T08:44:13.814Z</time></trkpt><trkpt lat="39.34997778522093" lon="9.050681783131271"><ele>57.0</ele><time>2026-04-28T08:44:14.814Z</time></trkpt><trkpt lat="39.350141108262264" lon="9.050653809127525"><ele>57.0</ele><time>2026-04-28T08:44:15.814Z</time></trkpt><trkpt lat="39.35029971484761" lon="9.050632294197179"><ele>57.0</ele><time>2026-04-28T08:44:16.814Z</time></trkpt><trkpt lat="39.35046056782074" lon="9.050609056090579"><ele>57.0</ele><time>2026-04-28T08:44:17.814Z</time></trkpt><trkpt lat="39.3506270836616" lon="9.050581884191981"><ele>58.33333333333333</ele><time>2026-04-28T08:44:18.814Z</time></trkpt><trkpt lat="39.35078989446565" lon="9.050558495425456"><ele>59.666666666666664</ele><time>2026-04-28T08:44:19.814Z</time></trkpt><trkpt lat="39.350956059848016" lon="9.050529975801545"><ele>61.0</ele><time>2026-04-28T08:44:20.814Z</time></trkpt><trkpt lat="39.351122498720514" lon="9.050502487120019"><ele>61.0</ele><time>2026-04-28T08:44:21.814Z</time></trkpt><trkpt lat="39.35129102908603" lon="9.050477152132238"><ele>61.0</ele><time>2026-04-28T08:44:22.814Z</time></trkpt><trkpt lat="39.351461540634524" lon="9.05044934220334"><ele>61.0</ele><time>2026-04-28T08:44:23.814Z</time></trkpt><trkpt lat="39.35163614827472" lon="9.050422174195837"><ele>61.33333333333333</ele><time>2026-04-28T08:44:24.814Z</time></trkpt><trkpt lat="39.35181239706024" lon="9.050395237028487"><ele>61.66666666666667</ele><time>2026-04-28T08:44:25.814Z</time></trkpt><trkpt lat="39.35199146871521" lon="9.050369379059887"><ele>62.0</ele><time>2026-04-28T08:44:26.814Z</time></trkpt><trkpt lat="39.35216918444753" lon="9.050344065914699"><ele>63.0</ele><time>2026-04-28T08:44:27.814Z</time></trkpt><trkpt lat="39.352345360334446" lon="9.050318328993168"><ele>64.0</ele><time>2026-04-28T08:44:28.814Z</time></trkpt><trkpt lat="39.35252180164619" lon="9.050288695046234"><ele>65.0</ele><time>2026-04-28T08:44:29.814Z</time></trkpt><trkpt lat="39.35270341314985" lon="9.050262404056948"><ele>65.0</ele><time>2026-04-28T08:44:30.814Z</time></trkpt><trkpt lat="39.352882592879766" lon="9.050222494925313"><ele>65.0</ele><time>2026-04-28T08:44:31.814Z</time></trkpt><trkpt lat="39.353064555934125" lon="9.05019387878766"><ele>65.0</ele><time>2026-04-28T08:44:32.814Z</time></trkpt><trkpt lat="39.35324705059106" lon="9.050166498784781"><ele>65.33333333333334</ele><time>2026-04-28T08:44:33.814Z</time></trkpt><trkpt lat="39.35343043456755" lon="9.050141348457275"><ele>65.66666666666667</ele><time>2026-04-28T08:44:34.814Z</time></trkpt><trkpt lat="39.353612999856836" lon="9.05011737398415"><ele>66.0</ele><time>2026-04-28T08:44:35.814Z</time></trkpt><trkpt lat="39.353794870913255" lon="9.050085865184133"><ele>66.33333333333333</ele><time>2026-04-28T08:44:36.814Z</time></trkpt><trkpt lat="39.35397517009083" lon="9.050057017699663"><ele>66.66666666666666</ele><time>2026-04-28T08:44:37.814Z</time></trkpt><trkpt lat="39.3541606400195" lon="9.050029259683292"><ele>67.0</ele><time>2026-04-28T08:44:38.814Z</time></trkpt><trkpt lat="39.35434229563607" lon="9.049999869557356"><ele>67.0</ele><time>2026-04-28T08:44:39.814Z</time></trkpt><trkpt lat="39.35452643500915" lon="9.04996428857299"><ele>67.0</ele><time>2026-04-28T08:44:40.814Z</time></trkpt><trkpt lat="39.35471145886409" lon="9.04994322245283"><ele>67.0</ele><time>2026-04-28T08:44:41.814Z</time></trkpt><trkpt lat="39.354896060243945" lon="9.04991355267136"><ele>66.33333333333333</ele><time>2026-04-28T08:44:42.814Z</time></trkpt><trkpt lat="39.355082279425496" lon="9.049881362775112"><ele>65.66666666666667</ele><time>2026-04-28T08:44:43.814Z</time></trkpt><trkpt lat="39.35527229093807" lon="9.04985517022478"><ele>65.0</ele><time>2026-04-28T08:44:44.814Z</time></trkpt><trkpt lat="39.35545939706312" lon="9.049826171824458"><ele>64.33333333333334</ele><time>2026-04-28T08:44:45.814Z</time></trkpt><trkpt lat="39.35564763383635" lon="9.049794984663718"><ele>63.66666666666667</ele><time>2026-04-28T08:44:46.814Z</time></trkpt><trkpt lat="39.355840285250366" lon="9.049766880052267"><ele>63.0</ele><time>2026-04-28T08:44:47.814Z</time></trkpt><trkpt lat="39.35602975086662" lon="9.049739298602605"><ele>63.0</ele><time>2026-04-28T08:44:48.814Z</time></trkpt><trkpt lat="39.35621893950289" lon="9.049713344056261"><ele>63.0</ele><time>2026-04-28T08:44:49.814Z</time></trkpt><trkpt lat="39.35641040358862" lon="9.049686890816297"><ele>63.0</ele><time>2026-04-28T08:44:50.814Z</time></trkpt><trkpt lat="39.356599056354064" lon="9.049663100642764"><ele>63.33333333333333</ele><time>2026-04-28T08:44:51.814Z</time></trkpt><trkpt lat="39.356778187844704" lon="9.049639483743253"><ele>63.666666666666664</ele><time>2026-04-28T08:44:52.814Z</time></trkpt><trkpt lat="39.35694185842727" lon="9.049615163798155"><ele>64.0</ele><time>2026-04-28T08:44:53.814Z</time></trkpt><trkpt lat="39.357105984193254" lon="9.049591193834388"><ele>64.0</ele><time>2026-04-28T08:44:54.814Z</time></trkpt><trkpt lat="39.357276530956014" lon="9.04956672034993"><ele>64.0</ele><time>2026-04-28T08:44:55.814Z</time></trkpt><trkpt lat="39.35744110467821" lon="9.049540508343359"><ele>64.0</ele><time>2026-04-28T08:44:56.814Z</time></trkpt><trkpt lat="39.35760600279616" lon="9.049512018919609"><ele>64.0</ele><time>2026-04-28T08:44:57.814Z</time></trkpt><trkpt lat="39.35777627991815" lon="9.04948416372652"><ele>64.0</ele><time>2026-04-28T08:44:58.814Z</time></trkpt><trkpt lat="39.357949337531295" lon="9.049458411540021"><ele>64.0</ele><time>2026-04-28T08:44:59.814Z</time></trkpt><trkpt lat="39.358089477916856" lon="9.049438079679414"><ele>64.75</ele><time>2026-04-28T08:45:00.814Z</time></trkpt><trkpt lat="39.35820619587212" lon="9.049422079160577"><ele>65.5</ele><time>2026-04-28T08:45:01.814Z</time></trkpt><trkpt lat="39.35832536843617" lon="9.049405407764008"><ele>66.25</ele><time>2026-04-28T08:45:02.814Z</time></trkpt><trkpt lat="39.3584457707692" lon="9.04938704331278"><ele>67.0</ele><time>2026-04-28T08:45:03.814Z</time></trkpt><trkpt lat="39.35856728026282" lon="9.049366247153047"><ele>67.0</ele><time>2026-04-28T08:45:04.814Z</time></trkpt><trkpt lat="39.358686957192006" lon="9.049347058489909"><ele>67.0</ele><time>2026-04-28T08:45:05.814Z</time></trkpt><trkpt lat="39.35880801065455" lon="9.049329735899262"><ele>67.0</ele><time>2026-04-28T08:45:06.814Z</time></trkpt><trkpt lat="39.35892873744021" lon="9.049310108207813"><ele>67.0</ele><time>2026-04-28T08:45:07.814Z</time></trkpt><trkpt lat="39.35904915065324" lon="9.049288064621381"><ele>67.75</ele><time>2026-04-28T08:45:08.814Z</time></trkpt><trkpt lat="39.35917158980786" lon="9.04926747278778"><ele>68.5</ele><time>2026-04-28T08:45:09.814Z</time></trkpt><trkpt lat="39.35929912826932" lon="9.049248076348436"><ele>69.25</ele><time>2026-04-28T08:45:10.814Z</time></trkpt><trkpt lat="39.359426605521925" lon="9.049231155199024"><ele>70.0</ele><time>2026-04-28T08:45:11.814Z</time></trkpt><trkpt lat="39.35955436587789" lon="9.049214198697726"><ele>70.0</ele><time>2026-04-28T08:45:12.814Z</time></trkpt><trkpt lat="39.359682596649215" lon="9.049201766396914"><ele>70.0</ele><time>2026-04-28T08:45:13.814Z</time></trkpt><trkpt lat="39.35981402838194" lon="9.049194400302984"><ele>70.0</ele><time>2026-04-28T08:45:14.814Z</time></trkpt><trkpt lat="39.35994360690007" lon="9.049209574370568"><ele>70.0</ele><time>2026-04-28T08:45:15.814Z</time></trkpt><trkpt lat="39.360073918003536" lon="9.049235901100978"><ele>70.25</ele><time>2026-04-28T08:45:16.814Z</time></trkpt><trkpt lat="39.36019282994785" lon="9.04928008732796"><ele>70.5</ele><time>2026-04-28T08:45:17.814Z</time></trkpt><trkpt lat="39.36032197923259" lon="9.049338775640464"><ele>70.75</ele><time>2026-04-28T08:45:18.814Z</time></trkpt><trkpt lat="39.36044908162857" lon="9.049404169936597"><ele>71.0</ele><time>2026-04-28T08:45:19.814Z</time></trkpt><trkpt lat="39.36058337427511" lon="9.0494645782706"><ele>70.5</ele><time>2026-04-28T08:45:20.814Z</time></trkpt><trkpt lat="39.36071522335388" lon="9.049530533457542"><ele>70.0</ele><time>2026-04-28T08:45:21.814Z</time></trkpt><trkpt lat="39.360825046642496" lon="9.04960342985898"><ele>69.5</ele><time>2026-04-28T08:45:22.814Z</time></trkpt><trkpt lat="39.36098775031791" lon="9.049661538636796"><ele>69.0</ele><time>2026-04-28T08:45:23.814Z</time></trkpt><trkpt lat="39.361100189135804" lon="9.049729205536156"><ele>69.0</ele><time>2026-04-28T08:45:24.814Z</time></trkpt><trkpt lat="39.36121100601804" lon="9.049785891218345"><ele>69.0</ele><time>2026-04-28T08:45:25.814Z</time></trkpt><trkpt lat="39.361316207878716" lon="9.049829567534703"><ele>69.0</ele><time>2026-04-28T08:45:26.814Z</time></trkpt><trkpt lat="39.36140333172129" lon="9.049855078832152"><ele>69.0</ele><time>2026-04-28T08:45:27.814Z</time></trkpt><trkpt lat="39.36147771765143" lon="9.049873941686451"><ele>69.0</ele><time>2026-04-28T08:45:28.814Z</time></trkpt><trkpt lat="39.361541806330315" lon="9.049897805591634"><ele>69.4</ele><time>2026-04-28T08:45:29.814Z</time></trkpt><trkpt lat="39.36160811135121" lon="9.050040193422513"><ele>69.80000000000001</ele><time>2026-04-28T08:45:31.814Z</time></trkpt><trkpt lat="39.361611739563976" lon="9.050148529684504"><ele>70.19999999999999</ele><time>2026-04-28T08:45:32.814Z</time></trkpt><trkpt lat="39.36163457980583" lon="9.05027896508457"><ele>70.6</ele><time>2026-04-28T08:45:33.814Z</time></trkpt><trkpt lat="39.36165882607695" lon="9.05041336016283"><ele>71.0</ele><time>2026-04-28T08:45:34.814Z</time></trkpt><trkpt lat="39.361681987153716" lon="9.050547100361365"><ele>71.0</ele><time>2026-04-28T08:45:35.814Z</time></trkpt><trkpt lat="39.36170518718704" lon="9.050682988368079"><ele>71.0</ele><time>2026-04-28T08:45:36.814Z</time></trkpt><trkpt lat="39.36172653471688" lon="9.050816362526684"><ele>71.0</ele><time>2026-04-28T08:45:37.813Z</time></trkpt><trkpt lat="39.36176131204936" lon="9.050942675073"><ele>71.0</ele><time>2026-04-28T08:45:38.813Z</time></trkpt><trkpt lat="39.361777920596026" lon="9.051062132219402"><ele>71.0</ele><time>2026-04-28T08:45:39.813Z</time></trkpt><trkpt lat="39.36179446705778" lon="9.051178071675121"><ele>71.39999999999999</ele><time>2026-04-28T08:45:40.813Z</time></trkpt><trkpt lat="39.36181238390997" lon="9.051296321785985"><ele>71.8</ele><time>2026-04-28T08:45:41.813Z</time></trkpt><trkpt lat="39.36183581262223" lon="9.051412316746447"><ele>72.19999999999999</ele><time>2026-04-28T08:45:42.813Z</time></trkpt><trkpt lat="39.36186867874774" lon="9.051531917928164"><ele>72.6</ele><time>2026-04-28T08:45:43.813Z</time></trkpt><trkpt lat="39.361912905326854" lon="9.051658419224417"><ele>73.0</ele><time>2026-04-28T08:45:44.813Z</time></trkpt><trkpt lat="39.36196697398348" lon="9.051792074261037"><ele>73.2</ele><time>2026-04-28T08:45:45.813Z</time></trkpt><trkpt lat="39.36200908803605" lon="9.051932375063064"><ele>73.4</ele><time>2026-04-28T08:45:46.813Z</time></trkpt><trkpt lat="39.36207849506689" lon="9.052034352763297"><ele>73.60000000000001</ele><time>2026-04-28T08:45:47.814Z</time></trkpt><trkpt lat="39.36212210930263" lon="9.052144060066253"><ele>73.8</ele><time>2026-04-28T08:45:48.814Z</time></trkpt><trkpt lat="39.36218696949138" lon="9.052236957293488"><ele>74.0</ele><time>2026-04-28T08:45:49.813Z</time></trkpt><trkpt lat="39.36225389700792" lon="9.052346034111652"><ele>74.5</ele><time>2026-04-28T08:45:50.813Z</time></trkpt><trkpt lat="39.36230865276738" lon="9.05247065411559"><ele>75.0</ele><time>2026-04-28T08:45:51.813Z</time></trkpt><trkpt lat="39.36236351994843" lon="9.052612280236865"><ele>75.5</ele><time>2026-04-28T08:45:52.813Z</time></trkpt><trkpt lat="39.3624223394548" lon="9.052765628256548"><ele>76.0</ele><time>2026-04-28T08:45:53.813Z</time></trkpt><trkpt lat="39.36247933113485" lon="9.052925075550242"><ele>76.0</ele><time>2026-04-28T08:45:54.813Z</time></trkpt><trkpt lat="39.362536481550194" lon="9.053079353590684"><ele>76.0</ele><time>2026-04-28T08:45:55.813Z</time></trkpt><trkpt lat="39.36258848375551" lon="9.053236319959849"><ele>76.0</ele><time>2026-04-28T08:45:56.813Z</time></trkpt><trkpt lat="39.3626523316679" lon="9.053379973764324"><ele>76.0</ele><time>2026-04-28T08:45:57.813Z</time></trkpt><trkpt lat="39.36270770276288" lon="9.05352423691857"><ele>76.2</ele><time>2026-04-28T08:45:58.813Z</time></trkpt><trkpt lat="39.362759166112" lon="9.053667047591771"><ele>76.39999999999999</ele><time>2026-04-28T08:45:59.813Z</time></trkpt><trkpt lat="39.362804656868526" lon="9.05380386558167"><ele>76.6</ele><time>2026-04-28T08:46:00.813Z</time></trkpt><trkpt lat="39.36284237991544" lon="9.05393053078995"><ele>76.8</ele><time>2026-04-28T08:46:01.813Z</time></trkpt><trkpt lat="39.362878055691795" lon="9.054045650933768"><ele>77.0</ele><time>2026-04-28T08:46:02.813Z</time></trkpt><trkpt lat="39.362915842895696" lon="9.054165349226382"><ele>77.4</ele><time>2026-04-28T08:46:03.813Z</time></trkpt><trkpt lat="39.36295737284645" lon="9.054292065343036"><ele>77.80000000000001</ele><time>2026-04-28T08:46:04.813Z</time></trkpt><trkpt lat="39.362982879171" lon="9.054426596542033"><ele>78.2</ele><time>2026-04-28T08:46:05.813Z</time></trkpt><trkpt lat="39.36302559703898" lon="9.05455373529534"><ele>78.60000000000001</ele><time>2026-04-28T08:46:06.813Z</time></trkpt><trkpt lat="39.36307016987422" lon="9.054692023559255"><ele>79.0</ele><time>2026-04-28T08:46:07.813Z</time></trkpt><trkpt lat="39.36311485371402" lon="9.05483649109875"><ele>79.75</ele><time>2026-04-28T08:46:08.813Z</time></trkpt><trkpt lat="39.363141161829255" lon="9.054976883796535"><ele>80.5</ele><time>2026-04-28T08:46:09.813Z</time></trkpt><trkpt lat="39.363187238949735" lon="9.055116702890624"><ele>81.25</ele><time>2026-04-28T08:46:10.813Z</time></trkpt><trkpt lat="39.36321559221077" lon="9.055261044310448"><ele>82.0</ele><time>2026-04-28T08:46:11.813Z</time></trkpt><trkpt lat="39.363256649884846" lon="9.055403822693748"><ele>82.0</ele><time>2026-04-28T08:46:12.813Z</time></trkpt><trkpt lat="39.3633055273378" lon="9.055543503866552"><ele>82.0</ele><time>2026-04-28T08:46:13.813Z</time></trkpt><trkpt lat="39.363359073490855" lon="9.055675910728498"><ele>82.0</ele><time>2026-04-28T08:46:14.813Z</time></trkpt><trkpt lat="39.3634098108898" lon="9.055807549377073"><ele>82.0</ele><time>2026-04-28T08:46:15.813Z</time></trkpt><trkpt lat="39.363454359439245" lon="9.055947587578771"><ele>82.0</ele><time>2026-04-28T08:46:16.813Z</time></trkpt><trkpt lat="39.36349265487433" lon="9.056096225588337"><ele>82.0</ele><time>2026-04-28T08:46:17.813Z</time></trkpt><trkpt lat="39.363525229422635" lon="9.056238834651577"><ele>82.0</ele><time>2026-04-28T08:46:18.813Z</time></trkpt><trkpt lat="39.36355073432143" lon="9.056376168259632"><ele>82.0</ele><time>2026-04-28T08:46:19.813Z</time></trkpt><trkpt lat="39.36357211957203" lon="9.056503644281234"><ele>82.0</ele><time>2026-04-28T08:46:20.813Z</time></trkpt><trkpt lat="39.36358733235217" lon="9.05661561696996"><ele>82.39999999999999</ele><time>2026-04-28T08:46:21.813Z</time></trkpt><trkpt lat="39.363588516920785" lon="9.056727640704533"><ele>82.8</ele><time>2026-04-28T08:46:22.813Z</time></trkpt><trkpt lat="39.36357795495499" lon="9.056847399668879"><ele>83.2</ele><time>2026-04-28T08:46:23.813Z</time></trkpt><trkpt lat="39.36357392514006" lon="9.056969528491484"><ele>83.6</ele><time>2026-04-28T08:46:24.813Z</time></trkpt><trkpt lat="39.36357776519214" lon="9.057079102004213"><ele>84.0</ele><time>2026-04-28T08:46:25.813Z</time></trkpt><trkpt lat="39.3636052492688" lon="9.057198069956813"><ele>84.0</ele><time>2026-04-28T08:46:26.813Z</time></trkpt><trkpt lat="39.363642400710965" lon="9.05731599264332"><ele>84.0</ele><time>2026-04-28T08:46:27.813Z</time></trkpt><trkpt lat="39.36369303926199" lon="9.05743731730406"><ele>84.0</ele><time>2026-04-28T08:46:28.813Z</time></trkpt><trkpt lat="39.363760650011415" lon="9.057563710139567"><ele>84.0</ele><time>2026-04-28T08:46:29.813Z</time></trkpt><trkpt lat="39.363837159143756" lon="9.057693441864414"><ele>85.0</ele><time>2026-04-28T08:46:30.813Z</time></trkpt><trkpt lat="39.363917222975914" lon="9.057817673492046"><ele>86.0</ele><time>2026-04-28T08:46:31.813Z</time></trkpt><trkpt lat="39.364004386779825" lon="9.05795314449064"><ele>87.0</ele><time>2026-04-28T08:46:32.813Z</time></trkpt><trkpt lat="39.36409112893649" lon="9.058092356025515"><ele>88.0</ele><time>2026-04-28T08:46:33.813Z</time></trkpt><trkpt lat="39.364174319853255" lon="9.058226512485788"><ele>88.5</ele><time>2026-04-28T08:46:34.813Z</time></trkpt><trkpt lat="39.364256404190506" lon="9.058350153540559"><ele>89.0</ele><time>2026-04-28T08:46:35.813Z</time></trkpt><trkpt lat="39.36434824471442" lon="9.058465192841757"><ele>89.5</ele><time>2026-04-28T08:46:36.813Z</time></trkpt><trkpt lat="39.36443755894856" lon="9.058567918252992"><ele>90.0</ele><time>2026-04-28T08:46:37.813Z</time></trkpt><trkpt lat="39.36453059567413" lon="9.058678879391582"><ele>90.0</ele><time>2026-04-28T08:46:38.813Z</time></trkpt><trkpt lat="39.3646227600018" lon="9.058786187403788"><ele>90.0</ele><time>2026-04-28T08:46:39.813Z</time></trkpt><trkpt lat="39.36470560879329" lon="9.058873758014432"><ele>90.0</ele><time>2026-04-28T08:46:40.813Z</time></trkpt><trkpt lat="39.36480526116506" lon="9.05895623137826"><ele>90.0</ele><time>2026-04-28T08:46:41.813Z</time></trkpt><trkpt lat="39.36490710875936" lon="9.059025132371014"><ele>90.0</ele><time>2026-04-28T08:46:42.813Z</time></trkpt><trkpt lat="39.365023878223646" lon="9.059104022653269"><ele>90.0</ele><time>2026-04-28T08:46:43.813Z</time></trkpt><trkpt lat="39.365121369159105" lon="9.059180762490763"><ele>90.0</ele><time>2026-04-28T08:46:44.813Z</time></trkpt><trkpt lat="39.36523878473097" lon="9.059246879316134"><ele>90.0</ele><time>2026-04-28T08:46:45.813Z</time></trkpt><trkpt lat="39.36535788268819" lon="9.059313876709822"><ele>90.25</ele><time>2026-04-28T08:46:46.813Z</time></trkpt><trkpt lat="39.36547863623978" lon="9.059362152062985"><ele>90.5</ele><time>2026-04-28T08:46:47.813Z</time></trkpt><trkpt lat="39.36559781110987" lon="9.05939918339927"><ele>90.75</ele><time>2026-04-28T08:46:48.813Z</time></trkpt><trkpt lat="39.36571457097432" lon="9.059409133361516"><ele>91.0</ele><time>2026-04-28T08:46:49.813Z</time></trkpt><trkpt lat="39.36583599465484" lon="9.05939651902986"><ele>91.19999999999999</ele><time>2026-04-28T08:46:50.813Z</time></trkpt><trkpt lat="39.36596606032056" lon="9.059373206846983"><ele>91.39999999999999</ele><time>2026-04-28T08:46:51.813Z</time></trkpt><trkpt lat="39.366063983507814" lon="9.059353344075678"><ele>91.6</ele><time>2026-04-28T08:46:52.813Z</time></trkpt><trkpt lat="39.36616700143175" lon="9.059349838315288"><ele>91.8</ele><time>2026-04-28T08:46:53.813Z</time></trkpt><trkpt lat="39.36628025058881" lon="9.059360621467942"><ele>92.0</ele><time>2026-04-28T08:46:54.813Z</time></trkpt><trkpt lat="39.36639925153735" lon="9.05939424696305"><ele>93.0</ele><time>2026-04-28T08:46:55.813Z</time></trkpt><trkpt lat="39.366513430049146" lon="9.059448189361051"><ele>94.0</ele><time>2026-04-28T08:46:56.813Z</time></trkpt><trkpt lat="39.366627823633834" lon="9.059522646871946"><ele>95.0</ele><time>2026-04-28T08:46:57.813Z</time></trkpt><trkpt lat="39.366733135752256" lon="9.05960771236862"><ele>96.0</ele><time>2026-04-28T08:46:58.813Z</time></trkpt><trkpt lat="39.366819087630475" lon="9.059694134370115"><ele>96.0</ele><time>2026-04-28T08:46:59.813Z</time></trkpt><trkpt lat="39.366884373780934" lon="9.059798554453064"><ele>96.0</ele><time>2026-04-28T08:47:00.813Z</time></trkpt><trkpt lat="39.366922937149326" lon="9.05992973862979"><ele>96.0</ele><time>2026-04-28T08:47:01.813Z</time></trkpt><trkpt lat="39.36695124615931" lon="9.06006414112884"><ele>96.0</ele><time>2026-04-28T08:47:02.813Z</time></trkpt><trkpt lat="39.366994680156516" lon="9.060200098605574"><ele>96.0</ele><time>2026-04-28T08:47:03.813Z</time></trkpt><trkpt lat="39.36703567593974" lon="9.060345232838415"><ele>96.25</ele><time>2026-04-28T08:47:04.813Z</time></trkpt><trkpt lat="39.36706935188913" lon="9.060488886200346"><ele>96.5</ele><time>2026-04-28T08:47:05.813Z</time></trkpt><trkpt lat="39.36710291805832" lon="9.060641181086366"><ele>96.75</ele><time>2026-04-28T08:47:06.813Z</time></trkpt><trkpt lat="39.36715197252474" lon="9.060791576981549"><ele>97.0</ele><time>2026-04-28T08:47:07.813Z</time></trkpt><trkpt lat="39.367199692918625" lon="9.060942067628876"><ele>97.5</ele><time>2026-04-28T08:47:08.813Z</time></trkpt><trkpt lat="39.367250291637724" lon="9.061096021157248"><ele>98.0</ele><time>2026-04-28T08:47:09.813Z</time></trkpt><trkpt lat="39.36731204868513" lon="9.061241792922036"><ele>98.5</ele><time>2026-04-28T08:47:10.813Z</time></trkpt><trkpt lat="39.36737185585937" lon="9.061378780494488"><ele>99.0</ele><time>2026-04-28T08:47:11.813Z</time></trkpt><trkpt lat="39.367418660177904" lon="9.061507353004616"><ele>100.2</ele><time>2026-04-28T08:47:12.813Z</time></trkpt><trkpt lat="39.36747771419926" lon="9.061630222678545"><ele>101.4</ele><time>2026-04-28T08:47:13.813Z</time></trkpt><trkpt lat="39.367539781129935" lon="9.061735016873872"><ele>102.6</ele><time>2026-04-28T08:47:14.813Z</time></trkpt><trkpt lat="39.36755707173879" lon="9.061846043903097"><ele>103.8</ele><time>2026-04-28T08:47:15.813Z</time></trkpt><trkpt lat="39.367576658136734" lon="9.061941756217697"><ele>105.0</ele><time>2026-04-28T08:47:16.813Z</time></trkpt><trkpt lat="39.36760481365574" lon="9.062049490391194"><ele>105.0</ele><time>2026-04-28T08:47:17.813Z</time></trkpt><trkpt lat="39.36760334057018" lon="9.062174667459868"><ele>105.0</ele><time>2026-04-28T08:47:18.813Z</time></trkpt><trkpt lat="39.36760746585483" lon="9.062299229559281"><ele>105.0</ele><time>2026-04-28T08:47:19.813Z</time></trkpt><trkpt lat="39.367614306090644" lon="9.062431102433244"><ele>105.0</ele><time>2026-04-28T08:47:20.813Z</time></trkpt><trkpt lat="39.36762524903712" lon="9.06254935290501"><ele>105.0</ele><time>2026-04-28T08:47:21.813Z</time></trkpt><trkpt lat="39.36764128050922" lon="9.062653064262864"><ele>106.0</ele><time>2026-04-28T08:47:22.813Z</time></trkpt><trkpt lat="39.36766599708241" lon="9.062756552214633"><ele>107.0</ele><time>2026-04-28T08:47:23.813Z</time></trkpt><trkpt lat="39.367711008541946" lon="9.062850009547404"><ele>108.0</ele><time>2026-04-28T08:47:24.813Z</time></trkpt><trkpt lat="39.36777544711114" lon="9.06294523086682"><ele>109.0</ele><time>2026-04-28T08:47:25.813Z</time></trkpt><trkpt lat="39.36783907722787" lon="9.063030843378845"><ele>110.0</ele><time>2026-04-28T08:47:26.813Z</time></trkpt><trkpt lat="39.36789364993364" lon="9.063120697686216"><ele>111.0</ele><time>2026-04-28T08:47:27.813Z</time></trkpt><trkpt lat="39.36793066289729" lon="9.063205948793987"><ele>111.0</ele><time>2026-04-28T08:47:28.813Z</time></trkpt><trkpt lat="39.367971160001964" lon="9.063284956753801"><ele>111.0</ele><time>2026-04-28T08:47:29.813Z</time></trkpt><trkpt lat="39.36790225325567" lon="9.063498370178882"><ele>111.0</ele><time>2026-04-28T08:47:31.813Z</time></trkpt><trkpt lat="39.367866697782894" lon="9.0636116750873"><ele>111.0</ele><time>2026-04-28T08:47:32.813Z</time></trkpt><trkpt lat="39.3678335785982" lon="9.063728064116784"><ele>111.0</ele><time>2026-04-28T08:47:33.813Z</time></trkpt><trkpt lat="39.36781780073809" lon="9.063864384267763"><ele>111.0</ele><time>2026-04-28T08:47:34.813Z</time></trkpt><trkpt lat="39.36778740877553" lon="9.06399805648034"><ele>111.0</ele><time>2026-04-28T08:47:35.813Z</time></trkpt><trkpt lat="39.36775185086964" lon="9.064137395107688"><ele>111.0</ele><time>2026-04-28T08:47:36.813Z</time></trkpt><trkpt lat="39.367727146608544" lon="9.064272607060067"><ele>111.0</ele><time>2026-04-28T08:47:37.813Z</time></trkpt><trkpt lat="39.36770557593084" lon="9.06441528402194"><ele>111.0</ele><time>2026-04-28T08:47:38.813Z</time></trkpt><trkpt lat="39.367689029388266" lon="9.064553878241526"><ele>111.0</ele><time>2026-04-28T08:47:39.813Z</time></trkpt><trkpt lat="39.36768823034825" lon="9.06468563431924"><ele>111.0</ele><time>2026-04-28T08:47:40.813Z</time></trkpt><trkpt lat="39.36770389288524" lon="9.064816302048708"><ele>111.0</ele><time>2026-04-28T08:47:41.813Z</time></trkpt><trkpt lat="39.36772504993095" lon="9.064952002775733"><ele>111.0</ele><time>2026-04-28T08:47:42.813Z</time></trkpt><trkpt lat="39.36775584603571" lon="9.06508080653675"><ele>111.0</ele><time>2026-04-28T08:47:43.812Z</time></trkpt><trkpt lat="39.367799873877246" lon="9.065202623198799"><ele>110.8</ele><time>2026-04-28T08:47:44.811Z</time></trkpt><trkpt lat="39.367855990696505" lon="9.065329816317968"><ele>110.6</ele><time>2026-04-28T08:47:45.811Z</time></trkpt><trkpt lat="39.36789770870133" lon="9.065454066375974"><ele>110.4</ele><time>2026-04-28T08:47:46.812Z</time></trkpt><trkpt lat="39.367894879616124" lon="9.065573807799879"><ele>110.2</ele><time>2026-04-28T08:47:47.812Z</time></trkpt><trkpt lat="39.36789155396589" lon="9.06568205896772"><ele>110.0</ele><time>2026-04-28T08:47:48.812Z</time></trkpt><trkpt lat="39.36789363465523" lon="9.065790451184997"><ele>110.4</ele><time>2026-04-28T08:47:49.812Z</time></trkpt><trkpt lat="39.36788084027678" lon="9.06592001863467"><ele>110.8</ele><time>2026-04-28T08:47:50.811Z</time></trkpt><trkpt lat="39.36785687307758" lon="9.066045723628692"><ele>111.19999999999999</ele><time>2026-04-28T08:47:51.811Z</time></trkpt><trkpt lat="39.367841451975444" lon="9.066161587727205"><ele>111.6</ele><time>2026-04-28T08:47:52.811Z</time></trkpt><trkpt lat="39.36781944287782" lon="9.06628958706801"><ele>112.0</ele><time>2026-04-28T08:47:53.812Z</time></trkpt><trkpt lat="39.367789895805565" lon="9.066405090278144"><ele>112.0</ele><time>2026-04-28T08:47:54.812Z</time></trkpt><trkpt lat="39.36776082890101" lon="9.06653138068962"><ele>111.99999999999999</ele><time>2026-04-28T08:47:55.811Z</time></trkpt><trkpt lat="39.36771422867227" lon="9.066654030582114"><ele>111.99999999999999</ele><time>2026-04-28T08:47:56.811Z</time></trkpt><trkpt lat="39.36766208901124" lon="9.066774886824886"><ele>112.0</ele><time>2026-04-28T08:47:57.811Z</time></trkpt><trkpt lat="39.36762438062562" lon="9.06690054739822"><ele>112.0</ele><time>2026-04-28T08:47:58.811Z</time></trkpt><trkpt lat="39.3675783931214" lon="9.06703914655229"><ele>112.75</ele><time>2026-04-28T08:47:59.811Z</time></trkpt><trkpt lat="39.36752963514894" lon="9.067171625450875"><ele>113.5</ele><time>2026-04-28T08:48:00.811Z</time></trkpt><trkpt lat="39.36747767661907" lon="9.067300853761378"><ele>114.25</ele><time>2026-04-28T08:48:01.811Z</time></trkpt><trkpt lat="39.367414794846745" lon="9.067422198180301"><ele>115.0</ele><time>2026-04-28T08:48:02.811Z</time></trkpt><trkpt lat="39.36734733064769" lon="9.067536877243384"><ele>115.0</ele><time>2026-04-28T08:48:03.811Z</time></trkpt><trkpt lat="39.36727424552231" lon="9.067640495462474"><ele>115.0</ele><time>2026-04-28T08:48:04.811Z</time></trkpt><trkpt lat="39.36718260207797" lon="9.067727721806325"><ele>115.0</ele><time>2026-04-28T08:48:05.81Z</time></trkpt><trkpt lat="39.367090636471836" lon="9.067807020868319"><ele>115.0</ele><time>2026-04-28T08:48:06.809Z</time></trkpt><trkpt lat="39.3669904396965" lon="9.067862967077643"><ele>115.0</ele><time>2026-04-28T08:48:07.809Z</time></trkpt><trkpt lat="39.36689755053242" lon="9.06791782809232"><ele>116.5</ele><time>2026-04-28T08:48:08.808Z</time></trkpt><trkpt lat="39.366789334738925" lon="9.06797094468529"><ele>118.0</ele><time>2026-04-28T08:48:09.807Z</time></trkpt><trkpt lat="39.36668666725654" lon="9.06804424637948"><ele>119.5</ele><time>2026-04-28T08:48:10.807Z</time></trkpt><trkpt lat="39.36658406796828" lon="9.068131790629774"><ele>121.0</ele><time>2026-04-28T08:48:11.806Z</time></trkpt><trkpt lat="39.36648712836912" lon="9.068217619769133"><ele>120.0</ele><time>2026-04-28T08:48:12.806Z</time></trkpt><trkpt lat="39.36639526053493" lon="9.068309685177086"><ele>119.0</ele><time>2026-04-28T08:48:13.806Z</time></trkpt><trkpt lat="39.36631456288859" lon="9.068411284793939"><ele>118.0</ele><time>2026-04-28T08:48:14.805Z</time></trkpt><trkpt lat="39.36624380742821" lon="9.068523323368607"><ele>117.0</ele><time>2026-04-28T08:48:15.805Z</time></trkpt><trkpt lat="39.36617052821803" lon="9.068649899119311"><ele>118.5</ele><time>2026-04-28T08:48:16.805Z</time></trkpt><trkpt lat="39.366102192402465" lon="9.06877153151699"><ele>120.0</ele><time>2026-04-28T08:48:17.804Z</time></trkpt><trkpt lat="39.366044619009976" lon="9.068907628248326"><ele>121.5</ele><time>2026-04-28T08:48:18.804Z</time></trkpt><trkpt lat="39.36596402760867" lon="9.069039063274474"><ele>123.0</ele><time>2026-04-28T08:48:19.804Z</time></trkpt><trkpt lat="39.36588967155049" lon="9.069176771766363"><ele>123.0</ele><time>2026-04-28T08:48:20.803Z</time></trkpt><trkpt lat="39.365825340903456" lon="9.069310175836884"><ele>123.0</ele><time>2026-04-28T08:48:21.803Z</time></trkpt><trkpt lat="39.3657585715991" lon="9.069447959147656"><ele>123.0</ele><time>2026-04-28T08:48:22.803Z</time></trkpt><trkpt lat="39.36567366030817" lon="9.069541817967718"><ele>123.0</ele><time>2026-04-28T08:48:23.803Z</time></trkpt><trkpt lat="39.36559357199662" lon="9.06960883441796"><ele>126.2</ele><time>2026-04-28T08:48:24.802Z</time></trkpt><trkpt lat="39.36551329184139" lon="9.069671348681178"><ele>129.4</ele><time>2026-04-28T08:48:25.802Z</time></trkpt><trkpt lat="39.3654343173004" lon="9.069736506831832"><ele>132.60000000000002</ele><time>2026-04-28T08:48:26.802Z</time></trkpt><trkpt lat="39.365351279252806" lon="9.06980501817645"><ele>135.8</ele><time>2026-04-28T08:48:27.802Z</time></trkpt><trkpt lat="39.36527617328874" lon="9.069860645246475"><ele>139.0</ele><time>2026-04-28T08:48:28.802Z</time></trkpt><trkpt lat="39.36519934138927" lon="9.069918606205704"><ele>137.16666666666669</ele><time>2026-04-28T08:48:29.802Z</time></trkpt><trkpt lat="39.36512455796536" lon="9.069975032269769"><ele>135.33333333333334</ele><time>2026-04-28T08:48:30.801Z</time></trkpt><trkpt lat="39.36505677246436" lon="9.070022195413072"><ele>133.5</ele><time>2026-04-28T08:48:31.801Z</time></trkpt><trkpt lat="39.364987357440185" lon="9.070069388991502"><ele>131.66666666666666</ele><time>2026-04-28T08:48:32.801Z</time></trkpt><trkpt lat="39.36491787781114" lon="9.070114806945263"><ele>129.83333333333331</ele><time>2026-04-28T08:48:33.801Z</time></trkpt><trkpt lat="39.36483038899254" lon="9.07017359190429"><ele>128.0</ele><time>2026-04-28T08:48:35.801Z</time></trkpt><trkpt lat="39.36477626246707" lon="9.070221317924942"><ele>127.0</ele><time>2026-04-28T08:48:36.801Z</time></trkpt><trkpt lat="39.36491060012791" lon="9.071083493624332"><ele>127.0</ele><time>2026-04-28T08:48:38.801Z</time></trkpt><trkpt lat="39.36488893557363" lon="9.071205384481587"><ele>126.99999999999999</ele><time>2026-04-28T08:48:39.801Z</time></trkpt><trkpt lat="39.36487344957842" lon="9.07132626851941"><ele>126.99999999999999</ele><time>2026-04-28T08:48:40.8Z</time></trkpt><trkpt lat="39.364844967239094" lon="9.071457653945117"><ele>127.0</ele><time>2026-04-28T08:48:41.8Z</time></trkpt><trkpt lat="39.36480473724574" lon="9.071565227226198"><ele>127.0</ele><time>2026-04-28T08:48:42.8Z</time></trkpt><trkpt lat="39.36477438166181" lon="9.071656162260222"><ele>126.83333333333334</ele><time>2026-04-28T08:48:43.8Z</time></trkpt><trkpt lat="39.36473818012905" lon="9.07174352541516"><ele>126.66666666666667</ele><time>2026-04-28T08:48:44.8Z</time></trkpt><trkpt lat="39.36470395675618" lon="9.07184007634392"><ele>126.5</ele><time>2026-04-28T08:48:45.8Z</time></trkpt><trkpt lat="39.364670205155974" lon="9.071929696967105"><ele>126.33333333333334</ele><time>2026-04-28T08:48:46.8Z</time></trkpt><trkpt lat="39.36463841375482" lon="9.072009205134313"><ele>126.16666666666667</ele><time>2026-04-28T08:48:47.8Z</time></trkpt><trkpt lat="39.36458333470127" lon="9.072129660153806"><ele>126.0</ele><time>2026-04-28T08:48:49.8Z</time></trkpt><trkpt lat="39.36454389691071" lon="9.072251570051632"><ele>129.0</ele><time>2026-04-28T08:48:51.8Z</time></trkpt><trkpt lat="39.36447615699329" lon="9.072376295967599"><ele>132.0</ele><time>2026-04-28T08:48:53.8Z</time></trkpt><trkpt lat="39.36442348990176" lon="9.072460758297215"><ele>135.0</ele><time>2026-04-28T08:48:55.8Z</time></trkpt><trkpt lat="39.36436230139772" lon="9.07256735107378"><ele>138.0</ele><time>2026-04-28T08:48:57.8Z</time></trkpt><trkpt lat="39.36427868507512" lon="9.07265048557802"><ele>141.0</ele><time>2026-04-28T08:48:59.8Z</time></trkpt><trkpt lat="39.36423182327858" lon="9.072708090964646"><ele>141.6</ele><time>2026-04-28T08:49:01.8Z</time></trkpt><trkpt lat="39.36416271643565" lon="9.072760728519215"><ele>142.2</ele><time>2026-04-28T08:49:03.8Z</time></trkpt><trkpt lat="39.36408406056316" lon="9.072838219007455"><ele>142.8</ele><time>2026-04-28T08:49:05.8Z</time></trkpt><trkpt lat="39.364025594529004" lon="9.072920041497056"><ele>143.4</ele><time>2026-04-28T08:50:14.798Z</time></trkpt><trkpt lat="39.36396132762232" lon="9.072992604930358"><ele>144.0</ele><time>2026-04-28T08:50:16.798Z</time></trkpt><trkpt lat="39.36387562093193" lon="9.073096311037087"><ele>143.83333333333334</ele><time>2026-04-28T08:50:18.798Z</time></trkpt><trkpt lat="39.363827946802395" lon="9.073164395033418"><ele>143.66666666666666</ele><time>2026-04-28T08:50:19.798Z</time></trkpt><trkpt lat="39.36377519241327" lon="9.07323250585501"><ele>143.5</ele><time>2026-04-28T08:50:20.798Z</time></trkpt><trkpt lat="39.363725634782696" lon="9.07329482686681"><ele>143.33333333333331</ele><time>2026-04-28T08:50:21.798Z</time></trkpt><trkpt lat="39.363651256329845" lon="9.073400449382957"><ele>143.16666666666666</ele><time>2026-04-28T08:50:23.798Z</time></trkpt><trkpt lat="39.36358790083744" lon="9.073503074783341"><ele>143.0</ele><time>2026-04-28T08:50:25.798Z</time></trkpt><trkpt lat="39.36353272163826" lon="9.073607600440907"><ele>143.0</ele><time>2026-04-28T08:50:27.798Z</time></trkpt><trkpt lat="39.36348269848364" lon="9.073710886404433"><ele>143.0</ele><time>2026-04-28T08:50:29.798Z</time></trkpt><trkpt lat="39.363389111867775" lon="9.073835579937423"><ele>143.0</ele><time>2026-04-28T08:50:31.798Z</time></trkpt><trkpt lat="39.36333587228823" lon="9.073894732543462"><ele>143.0</ele><time>2026-04-28T08:50:32.798Z</time></trkpt><trkpt lat="39.36325352809505" lon="9.074008623090544"><ele>143.0</ele><time>2026-04-28T08:50:34.798Z</time></trkpt><trkpt lat="39.363178481485626" lon="9.074118483104673"><ele>143.25</ele><time>2026-04-28T08:50:36.798Z</time></trkpt><trkpt lat="39.36313287505199" lon="9.074184837427467"><ele>143.5</ele><time>2026-04-28T08:50:39.798Z</time></trkpt><trkpt lat="39.36303701709525" lon="9.074340476484517"><ele>143.75</ele><time>2026-04-28T08:50:41.798Z</time></trkpt><trkpt lat="39.36292509886842" lon="9.074513322820325"><ele>144.0</ele><time>2026-04-28T08:50:42.798Z</time></trkpt><trkpt lat="39.362867892308564" lon="9.074587917743301"><ele>144.0</ele><time>2026-04-28T08:50:43.798Z</time></trkpt><trkpt lat="39.36282139851006" lon="9.074654153720655"><ele>144.0</ele><time>2026-04-28T08:50:44.798Z</time></trkpt><trkpt lat="39.36276895312261" lon="9.07471688462031"><ele>144.0</ele><time>2026-04-28T08:50:45.798Z</time></trkpt><trkpt lat="39.36270372570705" lon="9.074792112928206"><ele>144.0</ele><time>2026-04-28T08:50:46.798Z</time></trkpt><trkpt lat="39.36264372928413" lon="9.074860768289406"><ele>144.0</ele><time>2026-04-28T08:50:47.798Z</time></trkpt><trkpt lat="39.362582473720074" lon="9.074933017827655"><ele>144.0</ele><time>2026-04-28T08:50:48.798Z</time></trkpt><trkpt lat="39.3625143742253" lon="9.075003050900552"><ele>142.5</ele><time>2026-04-28T08:50:49.798Z</time></trkpt><trkpt lat="39.362446082234165" lon="9.075063950869424"><ele>141.0</ele><time>2026-04-28T08:50:50.798Z</time></trkpt><trkpt lat="39.36236761487924" lon="9.07512954526786"><ele>139.5</ele><time>2026-04-28T08:50:51.798Z</time></trkpt><trkpt lat="39.36229735844218" lon="9.07518268890986"><ele>138.0</ele><time>2026-04-28T08:50:52.798Z</time></trkpt><trkpt lat="39.36222041759506" lon="9.075240743017346"><ele>136.5</ele><time>2026-04-28T08:50:53.798Z</time></trkpt><trkpt lat="39.36215128642145" lon="9.075283386115679"><ele>135.0</ele><time>2026-04-28T08:50:54.798Z</time></trkpt><trkpt lat="39.3620832594392" lon="9.075336524911233"><ele>135.0</ele><time>2026-04-28T08:50:55.798Z</time></trkpt><trkpt lat="39.36200598509945" lon="9.075409083694742"><ele>135.0</ele><time>2026-04-28T08:50:56.798Z</time></trkpt><trkpt lat="39.361922072457986" lon="9.07547329611424"><ele>135.0</ele><time>2026-04-28T08:50:57.798Z</time></trkpt><trkpt lat="39.361837121684715" lon="9.075535991847001"><ele>135.0</ele><time>2026-04-28T08:50:58.798Z</time></trkpt><trkpt lat="39.36175671847429" lon="9.075591441567001"><ele>135.0</ele><time>2026-04-28T08:50:59.798Z</time></trkpt><trkpt lat="39.36167005211576" lon="9.075648379112556"><ele>135.0</ele><time>2026-04-28T08:51:00.798Z</time></trkpt><trkpt lat="39.36157585159622" lon="9.075706124895706"><ele>135.0</ele><time>2026-04-28T08:51:01.798Z</time></trkpt><trkpt lat="39.36147720424453" lon="9.075758849169596"><ele>135.0</ele><time>2026-04-28T08:51:02.798Z</time></trkpt><trkpt lat="39.3613835090195" lon="9.07580554441989"><ele>135.0</ele><time>2026-04-28T08:51:03.798Z</time></trkpt><trkpt lat="39.361310910406246" lon="9.075858184213008"><ele>135.0</ele><time>2026-04-28T08:51:04.798Z</time></trkpt><trkpt lat="39.36122848708897" lon="9.075919845523366"><ele>133.2</ele><time>2026-04-28T08:51:05.798Z</time></trkpt><trkpt lat="39.3611486193728" lon="9.075987752126288"><ele>131.4</ele><time>2026-04-28T08:51:06.798Z</time></trkpt><trkpt lat="39.361068990813344" lon="9.076047234937079"><ele>129.6</ele><time>2026-04-28T08:51:07.798Z</time></trkpt><trkpt lat="39.360989528110025" lon="9.07610834090477"><ele>127.8</ele><time>2026-04-28T08:51:08.798Z</time></trkpt><trkpt lat="39.36089982876943" lon="9.076148936734963"><ele>126.0</ele><time>2026-04-28T08:51:09.798Z</time></trkpt><trkpt lat="39.360817309033855" lon="9.076174953017203"><ele>126.0</ele><time>2026-04-28T08:51:10.798Z</time></trkpt><trkpt lat="39.360741071515974" lon="9.076204988943278"><ele>126.0</ele><time>2026-04-28T08:51:11.798Z</time></trkpt><trkpt lat="39.360658684593744" lon="9.07623844592607"><ele>126.0</ele><time>2026-04-28T08:51:12.798Z</time></trkpt><trkpt lat="39.36058527849178" lon="9.076275187946045"><ele>126.0</ele><time>2026-04-28T08:51:13.798Z</time></trkpt><trkpt lat="39.360506744043356" lon="9.076331072088584"><ele>126.0</ele><time>2026-04-28T08:51:14.798Z</time></trkpt><trkpt lat="39.36044963941122" lon="9.076392092076041"><ele>126.0</ele><time>2026-04-28T08:51:15.798Z</time></trkpt><trkpt lat="39.3604002235113" lon="9.076453016429237"><ele>125.66666666666667</ele><time>2026-04-28T08:51:16.798Z</time></trkpt><trkpt lat="39.360339859509736" lon="9.076544286030623"><ele>125.33333333333334</ele><time>2026-04-28T08:51:18.798Z</time></trkpt><trkpt lat="39.36027300492163" lon="9.07660046376288"><ele>125.0</ele><time>2026-04-28T08:51:20.798Z</time></trkpt><trkpt lat="39.36020049126587" lon="9.076640773784725"><ele>124.66666666666667</ele><time>2026-04-28T08:51:22.797Z</time></trkpt><trkpt lat="39.3601357629957" lon="9.07669489052885"><ele>124.33333333333334</ele><time>2026-04-28T08:51:25.797Z</time></trkpt><trkpt lat="39.36014840288831" lon="9.076786654891775"><ele>124.0</ele><time>2026-04-28T08:51:28.797Z</time></trkpt><trkpt lat="39.36019566328458" lon="9.076873329835191"><ele>123.71428571428572</ele><time>2026-04-28T08:51:31.797Z</time></trkpt><trkpt lat="39.3602388954384" lon="9.076966864798438"><ele>123.42857142857144</ele><time>2026-04-28T08:51:33.797Z</time></trkpt><trkpt lat="39.36028042368856" lon="9.07703088335522"><ele>123.14285714285714</ele><time>2026-04-28T08:51:35.797Z</time></trkpt><trkpt lat="39.3603258464861" lon="9.077093588431705"><ele>122.85714285714286</ele><time>2026-04-28T08:51:37.797Z</time></trkpt><trkpt lat="39.36037208351479" lon="9.077182557943086"><ele>122.57142857142857</ele><time>2026-04-28T08:51:39.797Z</time></trkpt><trkpt lat="39.3604021038559" lon="9.077256732656771"><ele>122.28571428571428</ele><time>2026-04-28T08:51:41.797Z</time></trkpt><trkpt lat="39.360437826787226" lon="9.077329285580797"><ele>121.99999999999999</ele><time>2026-04-28T08:51:45.797Z</time></trkpt><trkpt lat="39.36049164179517" lon="9.077444264188815"><ele>123.28571428571428</ele><time>2026-04-28T08:51:47.797Z</time></trkpt><trkpt lat="39.36052622898172" lon="9.077518602351839"><ele>124.57142857142857</ele><time>2026-04-28T08:51:48.797Z</time></trkpt><trkpt lat="39.36055960785787" lon="9.077594651379282"><ele>125.85714285714286</ele><time>2026-04-28T08:51:49.797Z</time></trkpt><trkpt lat="39.360591710822" lon="9.077673636590456"><ele>127.14285714285714</ele><time>2026-04-28T08:51:50.797Z</time></trkpt><trkpt lat="39.36062289487604" lon="9.07775190095128"><ele>128.42857142857144</ele><time>2026-04-28T08:51:51.797Z</time></trkpt><trkpt lat="39.36065735416372" lon="9.07783404719742"><ele>129.71428571428572</ele><time>2026-04-28T08:51:52.797Z</time></trkpt><trkpt lat="39.36069443892914" lon="9.077914281137707"><ele>131.0</ele><time>2026-04-28T08:51:53.797Z</time></trkpt><trkpt lat="39.36072538825008" lon="9.077987313512148"><ele>132.16666666666666</ele><time>2026-04-28T08:51:54.797Z</time></trkpt><trkpt lat="39.3607893119271" lon="9.078100882756443"><ele>133.33333333333331</ele><time>2026-04-28T08:51:56.796Z</time></trkpt><trkpt lat="39.36085456740968" lon="9.078206081967464"><ele>134.5</ele><time>2026-04-28T08:51:58.796Z</time></trkpt><trkpt lat="39.36081317361542" lon="9.07813640260068"><ele>135.66666666666666</ele><time>2026-04-28T08:52:02.797Z</time></trkpt><trkpt lat="39.36087052179508" lon="9.078193971736235"><ele>136.83333333333334</ele><time>2026-04-28T08:52:57.796Z</time></trkpt><trkpt lat="39.3609041747996" lon="9.07826890612769"><ele>138.0</ele><time>2026-04-28T08:53:26.796Z</time></trkpt><trkpt lat="39.36095099157183" lon="9.07836672231138"><ele>138.33333333333334</ele><time>2026-04-28T08:53:29.796Z</time></trkpt><trkpt lat="39.36100577131336" lon="9.078440613012257"><ele>138.66666666666666</ele><time>2026-04-28T08:53:33.796Z</time></trkpt><trkpt lat="39.36105804779159" lon="9.078509873074431"><ele>139.0</ele><time>2026-04-28T08:53:36.796Z</time></trkpt><trkpt lat="39.36110995392558" lon="9.07857345209383"><ele>139.33333333333331</ele><time>2026-04-28T08:53:38.796Z</time></trkpt><trkpt lat="39.3611633646272" lon="9.078637492836663"><ele>139.66666666666666</ele><time>2026-04-28T08:53:40.796Z</time></trkpt><trkpt lat="39.36120461481287" lon="9.078715816644138"><ele>140.0</ele><time>2026-04-28T08:53:42.796Z</time></trkpt><trkpt lat="39.36126104564619" lon="9.078837954793396"><ele>140.0</ele><time>2026-04-28T08:53:44.796Z</time></trkpt><trkpt lat="39.36134660016872" lon="9.078945583852047"><ele>140.0</ele><time>2026-04-28T08:53:46.796Z</time></trkpt><trkpt lat="39.361424777429534" lon="9.07906076993602"><ele>140.0</ele><time>2026-04-28T08:53:48.796Z</time></trkpt><trkpt lat="39.36146990050493" lon="9.079209936772402"><ele>140.0</ele><time>2026-04-28T08:53:50.796Z</time></trkpt><trkpt lat="39.36149757933804" lon="9.079293157088493"><ele>140.0</ele><time>2026-04-28T08:53:51.796Z</time></trkpt><trkpt lat="39.361532014003096" lon="9.079373726958577"><ele>140.0</ele><time>2026-04-28T08:53:52.796Z</time></trkpt><trkpt lat="39.361567177019666" lon="9.079464821901965"><ele>140.0</ele><time>2026-04-28T08:53:53.796Z</time></trkpt><trkpt lat="39.361603044436066" lon="9.079558901882118"><ele>140.0</ele><time>2026-04-28T08:53:54.796Z</time></trkpt><trkpt lat="39.361635599687226" lon="9.079660174325397"><ele>140.0</ele><time>2026-04-28T08:53:55.796Z</time></trkpt><trkpt lat="39.3616655193704" lon="9.079780802560443"><ele>140.0</ele><time>2026-04-28T08:53:56.796Z</time></trkpt><trkpt lat="39.36167637042105" lon="9.079893619991207"><ele>140.0</ele><time>2026-04-28T08:53:57.796Z</time></trkpt><trkpt lat="39.36169041467237" lon="9.07999468086146"><ele>140.66666666666666</ele><time>2026-04-28T08:53:58.796Z</time></trkpt><trkpt lat="39.361708049844914" lon="9.080099006672864"><ele>141.33333333333331</ele><time>2026-04-28T08:53:59.796Z</time></trkpt><trkpt lat="39.361725888618686" lon="9.080185715624202"><ele>142.0</ele><time>2026-04-28T08:54:00.796Z</time></trkpt><trkpt lat="39.361746199268325" lon="9.080291824636246"><ele>142.66666666666666</ele><time>2026-04-28T08:54:01.795Z</time></trkpt><trkpt lat="39.36176852470235" lon="9.080397074755462"><ele>143.33333333333334</ele><time>2026-04-28T08:54:02.794Z</time></trkpt><trkpt lat="39.361786797406126" lon="9.08047907259612"><ele>144.0</ele><time>2026-04-28T08:54:03.794Z</time></trkpt><trkpt lat="39.361807454043614" lon="9.080569472881823"><ele>144.0</ele><time>2026-04-28T08:54:04.794Z</time></trkpt><trkpt lat="39.36182753845626" lon="9.080710162576823"><ele>144.0</ele><time>2026-04-28T08:54:06.795Z</time></trkpt><trkpt lat="39.3618511447858" lon="9.08085266441777"><ele>144.0</ele><time>2026-04-28T08:54:08.794Z</time></trkpt><trkpt lat="39.361883619511005" lon="9.080980768514827"><ele>144.0</ele><time>2026-04-28T08:54:10.795Z</time></trkpt><trkpt lat="39.36190639306287" lon="9.081076242439808"><ele>144.0</ele><time>2026-04-28T08:54:12.794Z</time></trkpt><trkpt lat="39.361934720456965" lon="9.081154571240202"><ele>145.83333333333334</ele><time>2026-04-28T08:54:14.795Z</time></trkpt><trkpt lat="39.36196511631242" lon="9.08124665255503"><ele>147.66666666666666</ele><time>2026-04-28T08:54:16.795Z</time></trkpt><trkpt lat="39.36197258168469" lon="9.081333770063967"><ele>149.5</ele><time>2026-04-28T08:54:18.795Z</time></trkpt><trkpt lat="39.36198312131852" lon="9.081468828061544"><ele>151.33333333333331</ele><time>2026-04-28T08:54:20.795Z</time></trkpt><trkpt lat="39.36198806433742" lon="9.081574420270648"><ele>153.16666666666666</ele><time>2026-04-28T08:54:22.795Z</time></trkpt><trkpt lat="39.3620767485996" lon="9.081618997819243"><ele>155.0</ele><time>2026-04-28T08:54:51.795Z</time></trkpt><trkpt lat="39.36214617606386" lon="9.08163565708157"><ele>157.0</ele><time>2026-04-28T08:54:52.795Z</time></trkpt><trkpt lat="39.362217963150435" lon="9.081654843371464"><ele>159.0</ele><time>2026-04-28T08:54:53.795Z</time></trkpt><trkpt lat="39.36228726976435" lon="9.081671098345783"><ele>161.0</ele><time>2026-04-28T08:54:54.795Z</time></trkpt><trkpt lat="39.362356418720694" lon="9.081693748485712"><ele>163.0</ele><time>2026-04-28T08:54:55.795Z</time></trkpt><trkpt lat="39.36244680257508" lon="9.081713121801213"><ele>165.0</ele><time>2026-04-28T08:54:56.795Z</time></trkpt><trkpt lat="39.36254140441892" lon="9.081730417559255"><ele>167.0</ele><time>2026-04-28T08:54:57.795Z</time></trkpt><trkpt lat="39.36264272337649" lon="9.081741851567811"><ele>167.0</ele><time>2026-04-28T08:54:58.795Z</time></trkpt><trkpt lat="39.362734266074575" lon="9.08175021638227"><ele>167.0</ele><time>2026-04-28T08:54:59.795Z</time></trkpt><trkpt lat="39.36282331307793" lon="9.081759679694152"><ele>167.0</ele><time>2026-04-28T08:55:00.795Z</time></trkpt><trkpt lat="39.3629098325366" lon="9.0817721224039"><ele>167.0</ele><time>2026-04-28T08:55:01.795Z</time></trkpt><trkpt lat="39.363012229920926" lon="9.081784330340444"><ele>167.0</ele><time>2026-04-28T08:55:02.795Z</time></trkpt><trkpt lat="39.36311713056307" lon="9.08178950589672"><ele>167.8</ele><time>2026-04-28T08:55:03.795Z</time></trkpt><trkpt lat="39.363219335767816" lon="9.081798977777387"><ele>168.6</ele><time>2026-04-28T08:55:04.795Z</time></trkpt><trkpt lat="39.3633082916835" lon="9.081810931271198"><ele>169.4</ele><time>2026-04-28T08:55:05.795Z</time></trkpt><trkpt lat="39.3634017605748" lon="9.081830645206164"><ele>170.20000000000002</ele><time>2026-04-28T08:55:06.795Z</time></trkpt><trkpt lat="39.36349353453949" lon="9.081850535169158"><ele>171.0</ele><time>2026-04-28T08:55:07.795Z</time></trkpt><trkpt lat="39.36358883618033" lon="9.08186941884453"><ele>171.0</ele><time>2026-04-28T08:55:08.795Z</time></trkpt><trkpt lat="39.36369891073519" lon="9.081894023152033"><ele>171.0</ele><time>2026-04-28T08:55:09.795Z</time></trkpt><trkpt lat="39.36379051808485" lon="9.08191692775094"><ele>171.0</ele><time>2026-04-28T08:55:10.795Z</time></trkpt><trkpt lat="39.363864478597876" lon="9.081947481886441"><ele>171.0</ele><time>2026-04-28T08:55:11.795Z</time></trkpt><trkpt lat="39.36395289826622" lon="9.081979254982624"><ele>171.0</ele><time>2026-04-28T08:55:12.795Z</time></trkpt><trkpt lat="39.36402438021134" lon="9.08199176654541"><ele>171.0</ele><time>2026-04-28T08:55:13.795Z</time></trkpt><trkpt lat="39.36409232568865" lon="9.082009907308462"><ele>171.66666666666666</ele><time>2026-04-28T08:55:14.795Z</time></trkpt><trkpt lat="39.36416667606231" lon="9.082040253861805"><ele>172.33333333333334</ele><time>2026-04-28T08:55:15.795Z</time></trkpt><trkpt lat="39.36424197787814" lon="9.082072740176477"><ele>173.0</ele><time>2026-04-28T08:55:16.795Z</time></trkpt><trkpt lat="39.36430844016124" lon="9.082098405112548"><ele>173.66666666666669</ele><time>2026-04-28T08:55:17.795Z</time></trkpt><trkpt lat="39.36440390197779" lon="9.082144111503831"><ele>174.33333333333334</ele><time>2026-04-28T08:55:19.795Z</time></trkpt><trkpt lat="39.36441291499187" lon="9.08223665919124"><ele>175.0</ele><time>2026-04-28T08:55:22.795Z</time></trkpt><trkpt lat="39.364356194495585" lon="9.082337227587495"><ele>175.0</ele><time>2026-04-28T08:55:24.795Z</time></trkpt><trkpt lat="39.36431013477768" lon="9.082407947885743"><ele>175.0</ele><time>2026-04-28T08:55:25.795Z</time></trkpt><trkpt lat="39.3642673416313" lon="9.08247928627885"><ele>175.0</ele><time>2026-04-28T08:55:26.795Z</time></trkpt><trkpt lat="39.3642227689454" lon="9.08255621153194"><ele>175.0</ele><time>2026-04-28T08:55:27.795Z</time></trkpt><trkpt lat="39.364178692332814" lon="9.082644842773272"><ele>175.0</ele><time>2026-04-28T08:55:28.795Z</time></trkpt><trkpt lat="39.36413681675729" lon="9.08274100202919"><ele>175.0</ele><time>2026-04-28T08:55:29.795Z</time></trkpt><trkpt lat="39.36409559738966" lon="9.08285995970897"><ele>174.6</ele><time>2026-04-28T08:55:30.795Z</time></trkpt><trkpt lat="39.364049284636586" lon="9.08297722437057"><ele>174.2</ele><time>2026-04-28T08:55:31.795Z</time></trkpt><trkpt lat="39.36399847377229" lon="9.083077587538291"><ele>173.8</ele><time>2026-04-28T08:55:32.795Z</time></trkpt><trkpt lat="39.36395806845753" lon="9.083149729123093"><ele>173.4</ele><time>2026-04-28T08:55:33.795Z</time></trkpt><trkpt lat="39.36383963908734" lon="9.083219543452426"><ele>173.0</ele><time>2026-04-28T08:55:35.795Z</time></trkpt><trkpt lat="39.363763388528376" lon="9.083252411972365"><ele>173.0</ele><time>2026-04-28T08:55:36.795Z</time></trkpt><trkpt lat="39.36366282849255" lon="9.083245967983705"><ele>173.0</ele><time>2026-04-28T08:55:37.795Z</time></trkpt><trkpt lat="39.36356534597847" lon="9.083272076223988"><ele>173.0</ele><time>2026-04-28T08:55:38.795Z</time></trkpt><trkpt lat="39.36347549046875" lon="9.083291591963636"><ele>173.0</ele><time>2026-04-28T08:55:39.795Z</time></trkpt><trkpt lat="39.36340003389192" lon="9.083302880047336"><ele>173.0</ele><time>2026-04-28T08:55:40.795Z</time></trkpt><trkpt lat="39.36332515882371" lon="9.08332661448917"><ele>173.0</ele><time>2026-04-28T08:55:41.795Z</time></trkpt><trkpt lat="39.36325131512154" lon="9.083343930420275"><ele>173.60000000000002</ele><time>2026-04-28T08:55:42.795Z</time></trkpt><trkpt lat="39.36316510061031" lon="9.083364416025702"><ele>174.20000000000002</ele><time>2026-04-28T08:55:43.795Z</time></trkpt><trkpt lat="39.3630772104583" lon="9.083387807277155"><ele>174.8</ele><time>2026-04-28T08:55:44.795Z</time></trkpt><trkpt lat="39.36298261293274" lon="9.083412987147767"><ele>175.4</ele><time>2026-04-28T08:55:45.795Z</time></trkpt><trkpt lat="39.362883584625244" lon="9.083434678320726"><ele>176.0</ele><time>2026-04-28T08:55:46.795Z</time></trkpt><trkpt lat="39.362774511800076" lon="9.083460579575856"><ele>176.0</ele><time>2026-04-28T08:55:47.795Z</time></trkpt><trkpt lat="39.362671193087955" lon="9.083486612517962"><ele>176.0</ele><time>2026-04-28T08:55:48.794Z</time></trkpt><trkpt lat="39.36257773151612" lon="9.083508892658667"><ele>176.0</ele><time>2026-04-28T08:55:49.794Z</time></trkpt><trkpt lat="39.3625018732436" lon="9.083526204250049"><ele>176.0</ele><time>2026-04-28T08:55:50.794Z</time></trkpt><trkpt lat="39.362417222319095" lon="9.083548227579984"><ele>176.0</ele><time>2026-04-28T08:55:51.794Z</time></trkpt><trkpt lat="39.3623376693834" lon="9.083559096013323"><ele>176.0</ele><time>2026-04-28T08:55:52.794Z</time></trkpt><trkpt lat="39.36226787251655" lon="9.083566904359122"><ele>174.60000000000002</ele><time>2026-04-28T08:55:53.794Z</time></trkpt><trkpt lat="39.36217577657892" lon="9.083572940090392"><ele>173.2</ele><time>2026-04-28T08:55:55.794Z</time></trkpt><trkpt lat="39.36210336240042" lon="9.083568692007443"><ele>171.8</ele><time>2026-04-28T08:56:05.794Z</time></trkpt><trkpt lat="39.36203232393718" lon="9.083571900422793"><ele>170.39999999999998</ele><time>2026-04-28T08:57:15.792Z</time></trkpt><trkpt lat="39.36192626659017" lon="9.083601711148487"><ele>169.0</ele><time>2026-04-28T08:57:17.792Z</time></trkpt><trkpt lat="39.3618135982932" lon="9.083647876215027"><ele>169.0</ele><time>2026-04-28T08:57:19.792Z</time></trkpt><trkpt lat="39.36174980627572" lon="9.083674611416367"><ele>169.0</ele><time>2026-04-28T08:57:20.792Z</time></trkpt><trkpt lat="39.361684974804625" lon="9.083700903579192"><ele>169.0</ele><time>2026-04-28T08:57:21.792Z</time></trkpt><trkpt lat="39.36156108660833" lon="9.083754837534268"><ele>169.0</ele><time>2026-04-28T08:57:23.792Z</time></trkpt><trkpt lat="39.3614895224739" lon="9.08377862941748"><ele>169.0</ele><time>2026-04-28T08:57:24.792Z</time></trkpt><trkpt lat="39.361424130814655" lon="9.083807916143614"><ele>169.0</ele><time>2026-04-28T08:57:25.792Z</time></trkpt><trkpt lat="39.36136173972304" lon="9.083834748495285"><ele>167.57142857142858</ele><time>2026-04-28T08:57:26.792Z</time></trkpt><trkpt lat="39.36130066975373" lon="9.083864075754551"><ele>166.14285714285714</ele><time>2026-04-28T08:57:27.792Z</time></trkpt><trkpt lat="39.361232744237135" lon="9.083897328054034"><ele>164.71428571428572</ele><time>2026-04-28T08:57:28.792Z</time></trkpt><trkpt lat="39.361166656825134" lon="9.083935543278413"><ele>163.28571428571428</ele><time>2026-04-28T08:57:29.792Z</time></trkpt><trkpt lat="39.361101744807684" lon="9.083975119405189"><ele>161.85714285714286</ele><time>2026-04-28T08:57:30.792Z</time></trkpt><trkpt lat="39.36103648436022" lon="9.084008687433641"><ele>160.42857142857142</ele><time>2026-04-28T08:57:31.792Z</time></trkpt><trkpt lat="39.36096357727287" lon="9.084030360905054"><ele>159.0</ele><time>2026-04-28T08:57:32.792Z</time></trkpt><trkpt lat="39.36088925476645" lon="9.084052777808386"><ele>159.0</ele><time>2026-04-28T08:57:33.792Z</time></trkpt><trkpt lat="39.36082060191754" lon="9.08407928321235"><ele>159.0</ele><time>2026-04-28T08:57:34.792Z</time></trkpt><trkpt lat="39.3607445924875" lon="9.084108091533349"><ele>159.0</ele><time>2026-04-28T08:57:35.792Z</time></trkpt><trkpt lat="39.36066836410229" lon="9.084134559995746"><ele>159.0</ele><time>2026-04-28T08:57:36.792Z</time></trkpt><trkpt lat="39.3605901660682" lon="9.08416729550181"><ele>159.0</ele><time>2026-04-28T08:57:37.792Z</time></trkpt><trkpt lat="39.36052134083259" lon="9.084196864302923"><ele>159.0</ele><time>2026-04-28T08:57:38.792Z</time></trkpt><trkpt lat="39.36045328397616" lon="9.084226443082722"><ele>159.0</ele><time>2026-04-28T08:57:39.792Z</time></trkpt><trkpt lat="39.3603928041919" lon="9.084249496528555"><ele>159.0</ele><time>2026-04-28T08:57:40.792Z</time></trkpt><trkpt lat="39.360323642288314" lon="9.08428214854267"><ele>159.0</ele><time>2026-04-28T08:57:41.792Z</time></trkpt><trkpt lat="39.36025546676879" lon="9.08431521835645"><ele>159.0</ele><time>2026-04-28T08:57:42.792Z</time></trkpt><trkpt lat="39.36017999190807" lon="9.084350910960094"><ele>159.0</ele><time>2026-04-28T08:57:43.792Z</time></trkpt><trkpt lat="39.36010776125108" lon="9.084374864427089"><ele>159.0</ele><time>2026-04-28T08:57:44.792Z</time></trkpt><trkpt lat="39.36003822473834" lon="9.084389121641752"><ele>159.0</ele><time>2026-04-28T08:57:45.792Z</time></trkpt><trkpt lat="39.359964600484616" lon="9.08440928819971"><ele>159.0</ele><time>2026-04-28T08:57:46.792Z</time></trkpt><trkpt lat="39.359882242208265" lon="9.084414523900287"><ele>159.0</ele><time>2026-04-28T08:57:47.792Z</time></trkpt><trkpt lat="39.35979505265333" lon="9.084416990791526"><ele>159.0</ele><time>2026-04-28T08:57:48.792Z</time></trkpt><trkpt lat="39.35970632434093" lon="9.08441735691867"><ele>159.0</ele><time>2026-04-28T08:57:49.792Z</time></trkpt><trkpt lat="39.359625512752885" lon="9.084414449913302"><ele>159.0</ele><time>2026-04-28T08:57:50.792Z</time></trkpt><trkpt lat="39.359555807227345" lon="9.084399986780022"><ele>159.0</ele><time>2026-04-28T08:57:51.792Z</time></trkpt><trkpt lat="39.35947914535466" lon="9.084390888612422"><ele>158.0</ele><time>2026-04-28T08:57:52.792Z</time></trkpt><trkpt lat="39.35939915896015" lon="9.084374625007094"><ele>157.0</ele><time>2026-04-28T08:57:53.792Z</time></trkpt><trkpt lat="39.35931969701316" lon="9.084356011035426"><ele>156.0</ele><time>2026-04-28T08:57:54.792Z</time></trkpt><trkpt lat="39.359243362208666" lon="9.084339681083884"><ele>155.0</ele><time>2026-04-28T08:57:55.792Z</time></trkpt><trkpt lat="39.35916899230502" lon="9.084315879713591"><ele>154.0</ele><time>2026-04-28T08:57:56.792Z</time></trkpt><trkpt lat="39.35910272978558" lon="9.08428771821515"><ele>153.0</ele><time>2026-04-28T08:57:57.792Z</time></trkpt><trkpt lat="39.3590298357332" lon="9.084258209958586"><ele>153.0</ele><time>2026-04-28T08:57:58.792Z</time></trkpt><trkpt lat="39.35895817202138" lon="9.084226459244753"><ele>153.0</ele><time>2026-04-28T08:57:59.792Z</time></trkpt><trkpt lat="39.3588863097952" lon="9.084200191430952"><ele>153.0</ele><time>2026-04-28T08:58:00.792Z</time></trkpt><trkpt lat="39.358805622833316" lon="9.08417321043631"><ele>153.0</ele><time>2026-04-28T08:58:01.792Z</time></trkpt><trkpt lat="39.358732973451374" lon="9.08414795296221"><ele>153.0</ele><time>2026-04-28T08:58:02.792Z</time></trkpt><trkpt lat="39.35867022104946" lon="9.08413117422501"><ele>153.0</ele><time>2026-04-28T08:58:03.792Z</time></trkpt><trkpt lat="39.35860618006248" lon="9.084094786945627"><ele>153.0</ele><time>2026-04-28T08:58:04.792Z</time></trkpt><trkpt lat="39.358539443436186" lon="9.084062622045924"><ele>151.0</ele><time>2026-04-28T08:58:05.792Z</time></trkpt><trkpt lat="39.35846791356792" lon="9.08402749936857"><ele>149.0</ele><time>2026-04-28T08:58:06.792Z</time></trkpt><trkpt lat="39.35839660106097" lon="9.083991643283264"><ele>147.0</ele><time>2026-04-28T08:58:07.792Z</time></trkpt><trkpt lat="39.35832538261902" lon="9.083946982356231"><ele>145.0</ele><time>2026-04-28T08:58:08.792Z</time></trkpt><trkpt lat="39.358261352793" lon="9.083890810488736"><ele>143.0</ele><time>2026-04-28T08:58:09.792Z</time></trkpt><trkpt lat="39.35819792624473" lon="9.083828543919333"><ele>141.0</ele><time>2026-04-28T08:58:10.792Z</time></trkpt><trkpt lat="39.358146452470486" lon="9.083765327717071"><ele>141.0</ele><time>2026-04-28T08:58:11.792Z</time></trkpt><trkpt lat="39.35810042223197" lon="9.083703716381939"><ele>141.0</ele><time>2026-04-28T08:58:12.792Z</time></trkpt><trkpt lat="39.35805704470913" lon="9.083639948629651"><ele>141.0</ele><time>2026-04-28T08:58:13.79Z</time></trkpt><trkpt lat="39.35800961416857" lon="9.083581819532402"><ele>141.0</ele><time>2026-04-28T08:58:14.791Z</time></trkpt><trkpt lat="39.357956055891904" lon="9.083526315784798"><ele>141.0</ele><time>2026-04-28T08:58:15.791Z</time></trkpt><trkpt lat="39.357899319975026" lon="9.083469600669915"><ele>141.0</ele><time>2026-04-28T08:58:16.79Z</time></trkpt><trkpt lat="39.35783885415277" lon="9.083406950915153"><ele>141.0</ele><time>2026-04-28T08:58:17.79Z</time></trkpt><trkpt lat="39.35777380707527" lon="9.083343829817032"><ele>141.33333333333334</ele><time>2026-04-28T08:58:18.79Z</time></trkpt><trkpt lat="39.35770202903886" lon="9.083285093749524"><ele>141.66666666666666</ele><time>2026-04-28T08:58:19.791Z</time></trkpt><trkpt lat="39.357627114637936" lon="9.083228896458728"><ele>142.0</ele><time>2026-04-28T08:58:20.789Z</time></trkpt><trkpt lat="39.3575537613518" lon="9.083171158706703"><ele>142.33333333333331</ele><time>2026-04-28T08:58:21.789Z</time></trkpt><trkpt lat="39.35747888793361" lon="9.083109409600494"><ele>142.66666666666666</ele><time>2026-04-28T08:58:22.79Z</time></trkpt><trkpt lat="39.357409912675806" lon="9.083048573293578"><ele>143.0</ele><time>2026-04-28T08:58:23.79Z</time></trkpt><trkpt lat="39.35734417963006" lon="9.082986104851132"><ele>141.83333333333331</ele><time>2026-04-28T08:58:24.79Z</time></trkpt><trkpt lat="39.35727520731236" lon="9.082924658910928"><ele>140.66666666666666</ele><time>2026-04-28T08:58:25.79Z</time></trkpt><trkpt lat="39.357210854442506" lon="9.08286256225739"><ele>139.5</ele><time>2026-04-28T08:58:26.79Z</time></trkpt><trkpt lat="39.35712975510858" lon="9.082802814157956"><ele>138.33333333333334</ele><time>2026-04-28T08:58:27.79Z</time></trkpt><trkpt lat="39.35705767676411" lon="9.082740195028522"><ele>137.16666666666669</ele><time>2026-04-28T08:58:28.79Z</time></trkpt><trkpt lat="39.35698187860253" lon="9.082674977870816"><ele>136.0</ele><time>2026-04-28T08:58:29.79Z</time></trkpt><trkpt lat="39.35689119929441" lon="9.082609898639413"><ele>136.0</ele><time>2026-04-28T08:58:30.79Z</time></trkpt><trkpt lat="39.35677998601057" lon="9.082500842188352"><ele>136.0</ele><time>2026-04-28T08:58:31.79Z</time></trkpt><trkpt lat="39.35665493598406" lon="9.082381505340692"><ele>136.0</ele><time>2026-04-28T08:58:32.79Z</time></trkpt><trkpt lat="39.356753816074246" lon="9.082469222252882"><ele>136.0</ele><time>2026-04-28T08:58:33.79Z</time></trkpt><trkpt lat="39.35665782612532" lon="9.082368450201844"><ele>134.2</ele><time>2026-04-28T08:58:35.79Z</time></trkpt><trkpt lat="39.35657420209656" lon="9.082267964013274"><ele>132.39999999999998</ele><time>2026-04-28T08:58:37.79Z</time></trkpt><trkpt lat="39.35651114494115" lon="9.08217788137149"><ele>130.6</ele><time>2026-04-28T08:58:39.79Z</time></trkpt><trkpt lat="39.35643863774983" lon="9.082083188063848"><ele>128.79999999999998</ele><time>2026-04-28T08:58:41.79Z</time></trkpt><trkpt lat="39.35636803964383" lon="9.081976828732973"><ele>127.0</ele><time>2026-04-28T08:58:43.79Z</time></trkpt><trkpt lat="39.35628320895187" lon="9.081864200589905"><ele>126.16666666666667</ele><time>2026-04-28T08:58:45.79Z</time></trkpt><trkpt lat="39.35620411978222" lon="9.081745657442235"><ele>125.33333333333334</ele><time>2026-04-28T08:58:47.79Z</time></trkpt><trkpt lat="39.35616266733283" lon="9.081684163667651"><ele>124.5</ele><time>2026-04-28T08:58:48.79Z</time></trkpt><trkpt lat="39.35611726631334" lon="9.081620705841404"><ele>123.66666666666666</ele><time>2026-04-28T08:58:49.79Z</time></trkpt><trkpt lat="39.35607703787688" lon="9.081557278744908"><ele>122.83333333333333</ele><time>2026-04-28T08:58:50.79Z</time></trkpt><trkpt lat="39.3560119161945" lon="9.081434119856551"><ele>122.0</ele><time>2026-04-28T08:58:52.79Z</time></trkpt><trkpt lat="39.35595763233781" lon="9.081301503369733"><ele>120.99999999999999</ele><time>2026-04-28T08:58:54.79Z</time></trkpt><trkpt lat="39.355915469374985" lon="9.081195189829991"><ele>120.0</ele><time>2026-04-28T08:58:56.79Z</time></trkpt><trkpt lat="39.35587599936989" lon="9.081102128360898"><ele>119.0</ele><time>2026-04-28T08:59:02.79Z</time></trkpt><trkpt lat="39.35588615313814" lon="9.081183267471532"><ele>118.0</ele><time>2026-04-28T08:59:06.79Z</time></trkpt><trkpt lat="39.35593843346934" lon="9.081256742968359"><ele>116.99999999999999</ele><time>2026-04-28T08:59:08.79Z</time></trkpt><trkpt lat="39.35598217982759" lon="9.081347682292986"><ele>116.0</ele><time>2026-04-28T08:59:10.79Z</time></trkpt><trkpt lat="39.35603441531494" lon="9.081407075072066"><ele>116.00000000000001</ele><time>2026-04-28T08:59:12.79Z</time></trkpt><trkpt lat="39.356080460419335" lon="9.081466347876045"><ele>116.0</ele><time>2026-04-28T08:59:14.79Z</time></trkpt><trkpt lat="39.35611573798674" lon="9.081551959438599"><ele>116.00000000000001</ele><time>2026-04-28T08:59:17.79Z</time></trkpt><trkpt lat="39.356161959283" lon="9.081621325754213"><ele>116.00000000000001</ele><time>2026-04-28T08:59:20.79Z</time></trkpt><trkpt lat="39.35609641709323" lon="9.0816060206254"><ele>116.0</ele><time>2026-04-28T09:00:27.787Z</time></trkpt><trkpt lat="39.3560485966455" lon="9.081512245927518"><ele>116.00000000000001</ele><time>2026-04-28T09:00:30.787Z</time></trkpt><trkpt lat="39.356012090032316" lon="9.081426116611174"><ele>116.00000000000001</ele><time>2026-04-28T09:00:32.788Z</time></trkpt><trkpt lat="39.3559743959421" lon="9.081337688265267"><ele>116.0</ele><time>2026-04-28T09:00:34.788Z</time></trkpt><trkpt lat="39.355929928361675" lon="9.081233050400805"><ele>116.0</ele><time>2026-04-28T09:00:57.788Z</time></trkpt><trkpt lat="39.35588056521976" lon="9.081135485848554"><ele>116.0</ele><time>2026-04-28T09:00:59.788Z</time></trkpt><trkpt lat="39.35581428798126" lon="9.081049546578"><ele>116.0</ele><time>2026-04-28T09:01:01.788Z</time></trkpt><trkpt lat="39.35574361586563" lon="9.080942623440421"><ele>116.0</ele><time>2026-04-28T09:01:03.788Z</time></trkpt><trkpt lat="39.35567903148375" lon="9.08083923518061"><ele>115.66666666666666</ele><time>2026-04-28T09:01:05.788Z</time></trkpt><trkpt lat="39.35561002523014" lon="9.080735872577193"><ele>115.33333333333333</ele><time>2026-04-28T09:01:07.788Z</time></trkpt><trkpt lat="39.35553788937035" lon="9.080627837870844"><ele>115.0</ele><time>2026-04-28T09:01:09.788Z</time></trkpt><trkpt lat="39.355487022427795" lon="9.080538875746688"><ele>114.66666666666666</ele><time>2026-04-28T09:01:11.787Z</time></trkpt><trkpt lat="39.3554726932345" lon="9.080446599734401"><ele>114.33333333333333</ele><time>2026-04-28T09:01:13.787Z</time></trkpt><trkpt lat="39.35542896798458" lon="9.080382288964296"><ele>114.0</ele><time>2026-04-28T09:01:41.787Z</time></trkpt><trkpt lat="39.35541619405158" lon="9.080280401329503"><ele>113.2</ele><time>2026-04-28T09:01:49.787Z</time></trkpt><trkpt lat="39.35524024358176" lon="9.08040626492852"><ele>112.4</ele><time>2026-04-28T09:01:50.787Z</time></trkpt><trkpt lat="39.355144172340765" lon="9.080401615291736"><ele>111.6</ele><time>2026-04-28T09:07:40.862Z</time></trkpt><trkpt lat="39.355078781584275" lon="9.080424715051471"><ele>110.8</ele><time>2026-04-28T09:09:30.861Z</time></trkpt><trkpt lat="39.35499626237173" lon="9.080433389299804"><ele>110.0</ele><time>2026-04-28T09:09:36.861Z</time></trkpt><trkpt lat="39.354910922178426" lon="9.080436018630081"><ele>109.99999999999999</ele><time>2026-04-28T09:09:39.861Z</time></trkpt><trkpt lat="39.35483966872625" lon="9.080507438453392"><ele>110.0</ele><time>2026-04-28T09:09:42.861Z</time></trkpt><trkpt lat="39.354791248400204" lon="9.080574373700301"><ele>110.0</ele><time>2026-04-28T09:09:44.861Z</time></trkpt><trkpt lat="39.354732587335626" lon="9.080639885016955"><ele>110.0</ele><time>2026-04-28T09:09:46.861Z</time></trkpt><trkpt lat="39.354675976151185" lon="9.080712306686122"><ele>109.99999999999999</ele><time>2026-04-28T09:09:48.861Z</time></trkpt><trkpt lat="39.354614688757096" lon="9.080759891194475"><ele>110.0</ele><time>2026-04-28T09:09:51.862Z</time></trkpt><trkpt lat="39.354540885858775" lon="9.080797648668026"><ele>109.99999999999999</ele><time>2026-04-28T09:09:53.862Z</time></trkpt><trkpt lat="39.35446933876569" lon="9.080841088932031"><ele>110.0</ele><time>2026-04-28T09:09:55.862Z</time></trkpt><trkpt lat="39.35440229943115" lon="9.080876937555342"><ele>110.0</ele><time>2026-04-28T09:09:58.862Z</time></trkpt><trkpt lat="39.35433135999293" lon="9.080836146651617"><ele>110.0</ele><time>2026-04-28T09:10:10.862Z</time></trkpt><trkpt lat="39.35428532121543" lon="9.080762494998853"><ele>110.0</ele><time>2026-04-28T09:10:13.862Z</time></trkpt><trkpt lat="39.35424439663691" lon="9.08069959637543"><ele>109.99999999999999</ele><time>2026-04-28T09:10:15.862Z</time></trkpt><trkpt lat="39.354205312847895" lon="9.080632630856353"><ele>110.0</ele><time>2026-04-28T09:10:17.862Z</time></trkpt><trkpt lat="39.354161999328895" lon="9.08056374422595"><ele>109.99999999999999</ele><time>2026-04-28T09:10:19.862Z</time></trkpt><trkpt lat="39.354133201876174" lon="9.080483593738363"><ele>110.0</ele><time>2026-04-28T09:10:21.862Z</time></trkpt><trkpt lat="39.35408347449639" lon="9.080407045057418"><ele>110.0</ele><time>2026-04-28T09:10:25.862Z</time></trkpt><trkpt lat="39.354027987602436" lon="9.080344942894829"><ele>110.0</ele><time>2026-04-28T09:10:29.862Z</time></trkpt><trkpt lat="39.35398574707713" lon="9.080265071708446"><ele>109.99999999999999</ele><time>2026-04-28T09:10:32.862Z</time></trkpt><trkpt lat="39.35393035457237" lon="9.080190497775428"><ele>110.0</ele><time>2026-04-28T09:10:35.862Z</time></trkpt><trkpt lat="39.35386958182229" lon="9.080109579126923"><ele>109.99999999999999</ele><time>2026-04-28T09:10:38.862Z</time></trkpt><trkpt lat="39.35381530226729" lon="9.080022609503926"><ele>110.0</ele><time>2026-04-28T09:10:41.862Z</time></trkpt><trkpt lat="39.35376520876924" lon="9.079943474831682"><ele>110.0</ele><time>2026-04-28T09:10:44.862Z</time></trkpt><trkpt lat="39.35371440200817" lon="9.07987376906292"><ele>110.0</ele><time>2026-04-28T09:10:47.861Z</time></trkpt><trkpt lat="39.35366164768013" lon="9.079793634472127"><ele>109.99999999999999</ele><time>2026-04-28T09:10:51.86Z</time></trkpt><trkpt lat="39.35360983962079" lon="9.07970464992373"><ele>110.0</ele><time>2026-04-28T09:10:54.86Z</time></trkpt><trkpt lat="39.353554834782614" lon="9.07962683816618"><ele>109.99999999999999</ele><time>2026-04-28T09:10:57.86Z</time></trkpt><trkpt lat="39.35350504265401" lon="9.07954858672562"><ele>110.0</ele><time>2026-04-28T09:11:00.861Z</time></trkpt><trkpt lat="39.35346750247058" lon="9.079482885559823"><ele>110.0</ele><time>2026-04-28T09:11:02.861Z</time></trkpt><trkpt lat="39.35340286674555" lon="9.07938507127415"><ele>110.0</ele><time>2026-04-28T09:11:05.861Z</time></trkpt><trkpt lat="39.35335693390393" lon="9.07931128016471"><ele>109.99999999999999</ele><time>2026-04-28T09:11:07.861Z</time></trkpt><trkpt lat="39.353301623389555" lon="9.07923383236591"><ele>110.0</ele><time>2026-04-28T09:11:10.861Z</time></trkpt><trkpt lat="39.35331271167405" lon="9.079146915245353"><ele>109.99999999999999</ele><time>2026-04-28T09:11:34.861Z</time></trkpt><trkpt lat="39.35333359109672" lon="9.079057854704805"><ele>110.0</ele><time>2026-04-28T09:11:41.861Z</time></trkpt><trkpt lat="39.353251456476016" lon="9.079088993011386"><ele>110.0</ele><time>2026-04-28T09:11:52.861Z</time></trkpt><trkpt lat="39.35317730917164" lon="9.079168467193012"><ele>110.0</ele><time>2026-04-28T09:11:54.861Z</time></trkpt><trkpt lat="39.35312213360496" lon="9.079241584729571"><ele>109.99999999999999</ele><time>2026-04-28T09:11:56.861Z</time></trkpt><trkpt lat="39.353088585481636" lon="9.079359604455416"><ele>110.0</ele><time>2026-04-28T09:11:59.861Z</time></trkpt><trkpt lat="39.3530837456506" lon="9.079493928136545"><ele>109.99999999999999</ele><time>2026-04-28T09:12:01.861Z</time></trkpt><trkpt lat="39.353037533435284" lon="9.079577192005734"><ele>110.0</ele><time>2026-04-28T09:12:03.861Z</time></trkpt><trkpt lat="39.352974337740434" lon="9.079623180817332"><ele>110.0</ele><time>2026-04-28T09:12:06.861Z</time></trkpt><trkpt lat="39.35298369700923" lon="9.07972249405457"><ele>110.0</ele><time>2026-04-28T09:12:08.861Z</time></trkpt><trkpt lat="39.35302307899009" lon="9.0798712076073"><ele>109.99999999999999</ele><time>2026-04-28T09:12:10.861Z</time></trkpt><trkpt lat="39.35304912375083" lon="9.079968293683644"><ele>110.0</ele><time>2026-04-28T09:12:12.861Z</time></trkpt><trkpt lat="39.35306750278442" lon="9.080051299749131"><ele>110.0</ele><time>2026-04-28T09:13:18.859Z</time></trkpt><trkpt lat="39.35308427825179" lon="9.08013640583993"><ele>110.0</ele><time>2026-04-28T09:13:19.859Z</time></trkpt><trkpt lat="39.353101447362874" lon="9.080237776214945"><ele>110.0</ele><time>2026-04-28T09:13:20.859Z</time></trkpt><trkpt lat="39.35312272934592" lon="9.08035918501125"><ele>110.0</ele><time>2026-04-28T09:13:21.859Z</time></trkpt><trkpt lat="39.353145275584936" lon="9.080492452471919"><ele>110.0</ele><time>2026-04-28T09:13:22.859Z</time></trkpt><trkpt lat="39.353168977302936" lon="9.080634585759212"><ele>110.0</ele><time>2026-04-28T09:13:23.859Z</time></trkpt><trkpt lat="39.35318831102042" lon="9.080780604071034"><ele>110.0</ele><time>2026-04-28T09:13:24.859Z</time></trkpt><trkpt lat="39.35320428554331" lon="9.080930919900851"><ele>110.0</ele><time>2026-04-28T09:13:25.859Z</time></trkpt><trkpt lat="39.353213604458475" lon="9.08109364899933"><ele>110.0</ele><time>2026-04-28T09:13:26.859Z</time></trkpt><trkpt lat="39.35321826280294" lon="9.081261934641919"><ele>110.0</ele><time>2026-04-28T09:13:27.859Z</time></trkpt><trkpt lat="39.353214478177996" lon="9.08142677059211"><ele>110.0</ele><time>2026-04-28T09:13:28.859Z</time></trkpt><trkpt lat="39.353209949204704" lon="9.081601956044791"><ele>110.0</ele><time>2026-04-28T09:13:29.859Z</time></trkpt><trkpt lat="39.353209138207966" lon="9.08177634325944"><ele>110.0</ele><time>2026-04-28T09:13:30.859Z</time></trkpt><trkpt lat="39.353202671663325" lon="9.081956157554536"><ele>109.75</ele><time>2026-04-28T09:13:31.859Z</time></trkpt><trkpt lat="39.35320156208619" lon="9.082130873521585"><ele>109.5</ele><time>2026-04-28T09:13:32.859Z</time></trkpt><trkpt lat="39.3531985594237" lon="9.082301780856707"><ele>109.25</ele><time>2026-04-28T09:13:33.859Z</time></trkpt><trkpt lat="39.35319865445596" lon="9.082475349863834"><ele>109.0</ele><time>2026-04-28T09:13:34.859Z</time></trkpt><trkpt lat="39.35320396466062" lon="9.082632456364184"><ele>109.0</ele><time>2026-04-28T09:13:35.859Z</time></trkpt><trkpt lat="39.35319709700265" lon="9.082793481515768"><ele>109.0</ele><time>2026-04-28T09:13:36.859Z</time></trkpt><trkpt lat="39.35323301424337" lon="9.08295099111402"><ele>109.0</ele><time>2026-04-28T09:13:37.859Z</time></trkpt><trkpt lat="39.35324874150864" lon="9.083106685120631"><ele>109.0</ele><time>2026-04-28T09:13:38.859Z</time></trkpt><trkpt lat="39.353297407021124" lon="9.08326077364925"><ele>108.6</ele><time>2026-04-28T09:13:39.859Z</time></trkpt><trkpt lat="39.35336476001939" lon="9.083397204801047"><ele>108.2</ele><time>2026-04-28T09:13:40.859Z</time></trkpt><trkpt lat="39.35342000914121" lon="9.083541261756839"><ele>107.79999999999998</ele><time>2026-04-28T09:13:41.859Z</time></trkpt><trkpt lat="39.353454436352266" lon="9.083671988360662"><ele>107.39999999999999</ele><time>2026-04-28T09:13:42.859Z</time></trkpt><trkpt lat="39.35349848035112" lon="9.083761723791435"><ele>107.0</ele><time>2026-04-28T09:13:43.859Z</time></trkpt><trkpt lat="39.353548409456614" lon="9.083882045745122"><ele>106.99999999999999</ele><time>2026-04-28T09:13:45.859Z</time></trkpt><trkpt lat="39.3535961228036" lon="9.08399204270932"><ele>107.0</ele><time>2026-04-28T09:21:13.859Z</time></trkpt><trkpt lat="39.353647332441874" lon="9.084108471495092"><ele>107.0</ele><time>2026-04-28T09:21:15.859Z</time></trkpt><trkpt lat="39.35367615198753" lon="9.084183160208736"><ele>107.0</ele><time>2026-04-28T09:21:16.859Z</time></trkpt><trkpt lat="39.35372245738545" lon="9.084315221195565"><ele>106.99999999999999</ele><time>2026-04-28T09:21:18.857Z</time></trkpt><trkpt lat="39.35375001130684" lon="9.084392832293908"><ele>107.0</ele><time>2026-04-28T09:21:19.857Z</time></trkpt><trkpt lat="39.3537818556913" lon="9.084518400596206"><ele>107.5</ele><time>2026-04-28T09:21:20.857Z</time></trkpt><trkpt lat="39.35384036323941" lon="9.084665820925556"><ele>108.0</ele><time>2026-04-28T09:21:21.858Z</time></trkpt><trkpt lat="39.35391297096754" lon="9.084835976623086"><ele>108.5</ele><time>2026-04-28T09:21:22.858Z</time></trkpt><trkpt lat="39.35398550179933" lon="9.084995430899752"><ele>109.0</ele><time>2026-04-28T09:21:23.858Z</time></trkpt><trkpt lat="39.354056922227734" lon="9.085158697529186"><ele>109.0</ele><time>2026-04-28T09:21:24.857Z</time></trkpt><trkpt lat="39.35412533564126" lon="9.085322816055948"><ele>109.0</ele><time>2026-04-28T09:21:25.857Z</time></trkpt><trkpt lat="39.35418872540615" lon="9.085477620020466"><ele>109.0</ele><time>2026-04-28T09:21:26.858Z</time></trkpt><trkpt lat="39.3542528294141" lon="9.085630266717006"><ele>109.0</ele><time>2026-04-28T09:21:27.858Z</time></trkpt><trkpt lat="39.3543254508885" lon="9.085783454784114"><ele>107.75</ele><time>2026-04-28T09:21:28.858Z</time></trkpt><trkpt lat="39.3544047386115" lon="9.085929569305808"><ele>106.5</ele><time>2026-04-28T09:21:29.858Z</time></trkpt><trkpt lat="39.3544756510442" lon="9.086086717033181"><ele>105.25</ele><time>2026-04-28T09:21:30.857Z</time></trkpt><trkpt lat="39.35457348917251" lon="9.086225721554074"><ele>104.0</ele><time>2026-04-28T09:21:31.857Z</time></trkpt><trkpt lat="39.35467205693668" lon="9.086363103320535"><ele>105.75</ele><time>2026-04-28T09:21:32.857Z</time></trkpt><trkpt lat="39.3547731753063" lon="9.086498941764706"><ele>107.5</ele><time>2026-04-28T09:21:33.857Z</time></trkpt><trkpt lat="39.35488725381982" lon="9.086622348267587"><ele>109.25</ele><time>2026-04-28T09:21:34.857Z</time></trkpt><trkpt lat="39.354990510338666" lon="9.086762071171641"><ele>111.0</ele><time>2026-04-28T09:21:35.857Z</time></trkpt><trkpt lat="39.355089533020475" lon="9.086897090073895"><ele>111.66666666666666</ele><time>2026-04-28T09:21:36.857Z</time></trkpt><trkpt lat="39.35519283127278" lon="9.087036991400254"><ele>112.33333333333333</ele><time>2026-04-28T09:21:37.857Z</time></trkpt><trkpt lat="39.35529757296254" lon="9.087177429048563"><ele>113.0</ele><time>2026-04-28T09:21:38.857Z</time></trkpt><trkpt lat="39.355402557622824" lon="9.087318900822599"><ele>112.66666666666666</ele><time>2026-04-28T09:21:39.857Z</time></trkpt><trkpt lat="39.35550867815813" lon="9.087462859800713"><ele>112.33333333333334</ele><time>2026-04-28T09:21:40.857Z</time></trkpt><trkpt lat="39.35561559076676" lon="9.087605883309985"><ele>112.0</ele><time>2026-04-28T09:21:41.857Z</time></trkpt><trkpt lat="39.35572490561416" lon="9.087750142571993"><ele>112.66666666666667</ele><time>2026-04-28T09:21:42.857Z</time></trkpt><trkpt lat="39.355831772296554" lon="9.087892252828727"><ele>113.33333333333334</ele><time>2026-04-28T09:21:43.857Z</time></trkpt><trkpt lat="39.35594178560478" lon="9.088035364130626"><ele>114.0</ele><time>2026-04-28T09:21:44.857Z</time></trkpt><trkpt lat="39.35604716130983" lon="9.088178173060601"><ele>112.75</ele><time>2026-04-28T09:21:45.857Z</time></trkpt><trkpt lat="39.35615469585312" lon="9.088326334236502"><ele>111.5</ele><time>2026-04-28T09:21:46.857Z</time></trkpt><trkpt lat="39.356257349021476" lon="9.08846422262167"><ele>110.25</ele><time>2026-04-28T09:21:47.857Z</time></trkpt><trkpt lat="39.35635437619309" lon="9.088598173750222"><ele>109.0</ele><time>2026-04-28T09:21:48.857Z</time></trkpt><trkpt lat="39.35644575922888" lon="9.08873686443295"><ele>108.75</ele><time>2026-04-28T09:21:49.857Z</time></trkpt><trkpt lat="39.356529268728366" lon="9.088885219342716"><ele>108.5</ele><time>2026-04-28T09:21:50.857Z</time></trkpt><trkpt lat="39.356598089913646" lon="9.089045390101743"><ele>108.25</ele><time>2026-04-28T09:21:51.857Z</time></trkpt><trkpt lat="39.35665562038836" lon="9.089213854887284"><ele>108.0</ele><time>2026-04-28T09:21:52.857Z</time></trkpt><trkpt lat="39.356704597426294" lon="9.089391474701195"><ele>107.0</ele><time>2026-04-28T09:21:53.857Z</time></trkpt><trkpt lat="39.35674869552574" lon="9.089577090228529"><ele>106.0</ele><time>2026-04-28T09:21:54.858Z</time></trkpt><trkpt lat="39.35679310724246" lon="9.08976631190484"><ele>105.0</ele><time>2026-04-28T09:21:55.858Z</time></trkpt><trkpt lat="39.35683846391988" lon="9.089961973779088"><ele>104.0</ele><time>2026-04-28T09:21:56.858Z</time></trkpt><trkpt lat="39.35688360634433" lon="9.090151536967976"><ele>103.0</ele><time>2026-04-28T09:21:57.858Z</time></trkpt><trkpt lat="39.35693055692902" lon="9.090352089498541"><ele>102.0</ele><time>2026-04-28T09:21:58.858Z</time></trkpt><trkpt lat="39.35697495392501" lon="9.090549760778199"><ele>102.0</ele><time>2026-04-28T09:21:59.858Z</time></trkpt><trkpt lat="39.35702275988812" lon="9.090748415146244"><ele>102.0</ele><time>2026-04-28T09:22:00.858Z</time></trkpt><trkpt lat="39.35707075328824" lon="9.090952625380403"><ele>102.0</ele><time>2026-04-28T09:22:01.858Z</time></trkpt><trkpt lat="39.35711681756335" lon="9.09115537500614"><ele>102.0</ele><time>2026-04-28T09:22:02.858Z</time></trkpt><trkpt lat="39.35716538524775" lon="9.09136490994229"><ele>102.0</ele><time>2026-04-28T09:22:03.858Z</time></trkpt><trkpt lat="39.3572118971461" lon="9.091571317050215"><ele>102.0</ele><time>2026-04-28T09:22:04.858Z</time></trkpt><trkpt lat="39.357258907404166" lon="9.09178069662858"><ele>103.75</ele><time>2026-04-28T09:22:05.858Z</time></trkpt><trkpt lat="39.3573000958713" lon="9.091973322733491"><ele>105.5</ele><time>2026-04-28T09:22:06.858Z</time></trkpt><trkpt lat="39.357341576812814" lon="9.092149627843638"><ele>107.25</ele><time>2026-04-28T09:22:07.858Z</time></trkpt><trkpt lat="39.35737683791451" lon="9.092306523835797"><ele>109.0</ele><time>2026-04-28T09:22:08.858Z</time></trkpt><trkpt lat="39.35740891662956" lon="9.092439887480406"><ele>109.00000000000001</ele><time>2026-04-28T09:22:09.858Z</time></trkpt><trkpt lat="39.35743030144922" lon="9.092556855917408"><ele>109.0</ele><time>2026-04-28T09:22:10.858Z</time></trkpt><trkpt lat="39.35744199504087" lon="9.092672326153803"><ele>109.0</ele><time>2026-04-28T09:22:11.858Z</time></trkpt><trkpt lat="39.35745053288216" lon="9.092788470748296"><ele>109.0</ele><time>2026-04-28T09:22:12.858Z</time></trkpt><trkpt lat="39.35747353690359" lon="9.092889631277476"><ele>109.00000000000001</ele><time>2026-04-28T09:22:13.858Z</time></trkpt><trkpt lat="39.357509178835144" lon="9.092983980255944"><ele>109.0</ele><time>2026-04-28T09:22:15.858Z</time></trkpt><trkpt lat="39.357556422319725" lon="9.093042802559115"><ele>109.00000000000001</ele><time>2026-04-28T09:22:18.858Z</time></trkpt><trkpt lat="39.357603961044845" lon="9.093156579740674"><ele>109.0</ele><time>2026-04-28T09:22:20.858Z</time></trkpt><trkpt lat="39.35761961406662" lon="9.093254803731861"><ele>109.0</ele><time>2026-04-28T09:22:21.858Z</time></trkpt><trkpt lat="39.35765102657717" lon="9.093351088435876"><ele>109.0</ele><time>2026-04-28T09:22:22.858Z</time></trkpt><trkpt lat="39.35769422637716" lon="9.093452788615595"><ele>109.00000000000001</ele><time>2026-04-28T09:22:23.858Z</time></trkpt><trkpt lat="39.35772363150794" lon="9.093577730249333"><ele>109.0</ele><time>2026-04-28T09:22:24.858Z</time></trkpt><trkpt lat="39.357752846082995" lon="9.093709492598116"><ele>108.6</ele><time>2026-04-28T09:22:25.858Z</time></trkpt><trkpt lat="39.35777902634742" lon="9.093847566821099"><ele>108.2</ele><time>2026-04-28T09:22:26.858Z</time></trkpt><trkpt lat="39.35780217408381" lon="9.093980508598206"><ele>107.79999999999998</ele><time>2026-04-28T09:22:27.858Z</time></trkpt><trkpt lat="39.35782956818783" lon="9.094110432521223"><ele>107.39999999999999</ele><time>2026-04-28T09:22:28.858Z</time></trkpt><trkpt lat="39.35786520719968" lon="9.094243370765197"><ele>107.0</ele><time>2026-04-28T09:22:29.858Z</time></trkpt><trkpt lat="39.35790623709484" lon="9.094385517376443"><ele>107.0</ele><time>2026-04-28T09:22:30.858Z</time></trkpt><trkpt lat="39.357956395894334" lon="9.094528532557922"><ele>107.0</ele><time>2026-04-28T09:22:31.858Z</time></trkpt><trkpt lat="39.358015949817" lon="9.094671417357542"><ele>107.0</ele><time>2026-04-28T09:22:32.858Z</time></trkpt><trkpt lat="39.35808032496409" lon="9.094816819611864"><ele>107.0</ele><time>2026-04-28T09:22:33.858Z</time></trkpt><trkpt lat="39.35814585562346" lon="9.094965311087217"><ele>107.0</ele><time>2026-04-28T09:22:34.858Z</time></trkpt><trkpt lat="39.35821495960558" lon="9.095114526797255"><ele>107.0</ele><time>2026-04-28T09:22:35.858Z</time></trkpt><trkpt lat="39.35829016832592" lon="9.095273497689755"><ele>107.0</ele><time>2026-04-28T09:22:36.858Z</time></trkpt><trkpt lat="39.35836848607876" lon="9.095440659622685"><ele>107.0</ele><time>2026-04-28T09:22:37.858Z</time></trkpt><trkpt lat="39.3584430980632" lon="9.095607533545534"><ele>107.0</ele><time>2026-04-28T09:22:38.858Z</time></trkpt><trkpt lat="39.35851360998949" lon="9.095770032577835"><ele>107.0</ele><time>2026-04-28T09:22:39.858Z</time></trkpt><trkpt lat="39.35858022508042" lon="9.09592605855663"><ele>107.0</ele><time>2026-04-28T09:22:40.858Z</time></trkpt><trkpt lat="39.35863675209397" lon="9.096088011035155"><ele>107.0</ele><time>2026-04-28T09:22:41.858Z</time></trkpt><trkpt lat="39.3586859847004" lon="9.09625404467185"><ele>107.0</ele><time>2026-04-28T09:22:42.858Z</time></trkpt><trkpt lat="39.35872493708841" lon="9.096424455286224"><ele>107.0</ele><time>2026-04-28T09:22:43.858Z</time></trkpt><trkpt lat="39.35875887665155" lon="9.09659530949558"><ele>107.0</ele><time>2026-04-28T09:22:44.858Z</time></trkpt><trkpt lat="39.358798732695476" lon="9.09676487683046"><ele>107.0</ele><time>2026-04-28T09:22:45.858Z</time></trkpt><trkpt lat="39.35883823258731" lon="9.096936883472852"><ele>107.75</ele><time>2026-04-28T09:22:46.858Z</time></trkpt><trkpt lat="39.35887677189502" lon="9.097111110430445"><ele>108.5</ele><time>2026-04-28T09:22:47.858Z</time></trkpt><trkpt lat="39.35891570364866" lon="9.09728425081024"><ele>109.25</ele><time>2026-04-28T09:22:48.858Z</time></trkpt><trkpt lat="39.35895779388981" lon="9.097457641899219"><ele>110.0</ele><time>2026-04-28T09:22:49.858Z</time></trkpt><trkpt lat="39.35900638152213" lon="9.097631588450291"><ele>110.25</ele><time>2026-04-28T09:22:50.858Z</time></trkpt><trkpt lat="39.35905959949641" lon="9.097803042820852"><ele>110.5</ele><time>2026-04-28T09:22:51.858Z</time></trkpt><trkpt lat="39.35911595718908" lon="9.097976636960801"><ele>110.75</ele><time>2026-04-28T09:22:52.858Z</time></trkpt><trkpt lat="39.35917495085622" lon="9.098153293019703"><ele>111.0</ele><time>2026-04-28T09:22:53.858Z</time></trkpt><trkpt lat="39.35923248856677" lon="9.09833385962217"><ele>112.0</ele><time>2026-04-28T09:22:54.858Z</time></trkpt><trkpt lat="39.35928790209558" lon="9.098522499274209"><ele>113.0</ele><time>2026-04-28T09:22:55.858Z</time></trkpt><trkpt lat="39.35933647855039" lon="9.098714062868774"><ele>114.0</ele><time>2026-04-28T09:22:56.858Z</time></trkpt><trkpt lat="39.3593816890179" lon="9.098899313143566"><ele>114.0</ele><time>2026-04-28T09:22:57.858Z</time></trkpt><trkpt lat="39.35942808681424" lon="9.09908369832172"><ele>114.0</ele><time>2026-04-28T09:22:58.858Z</time></trkpt><trkpt lat="39.3594664610188" lon="9.099276158433318"><ele>114.0</ele><time>2026-04-28T09:22:59.858Z</time></trkpt><trkpt lat="39.359525447811485" lon="9.099458768723895"><ele>114.75</ele><time>2026-04-28T09:23:00.858Z</time></trkpt><trkpt lat="39.359587779197874" lon="9.099629140374017"><ele>115.5</ele><time>2026-04-28T09:23:01.858Z</time></trkpt><trkpt lat="39.359672045651635" lon="9.099785883614487"><ele>116.25</ele><time>2026-04-28T09:23:02.858Z</time></trkpt><trkpt lat="39.35973570914601" lon="9.099941832906215"><ele>117.0</ele><time>2026-04-28T09:23:03.858Z</time></trkpt><trkpt lat="39.35979069488183" lon="9.100086622567593"><ele>119.75</ele><time>2026-04-28T09:23:04.858Z</time></trkpt><trkpt lat="39.35983382467223" lon="9.100237505310227"><ele>122.5</ele><time>2026-04-28T09:23:05.858Z</time></trkpt><trkpt lat="39.35987985471318" lon="9.100400618051152"><ele>125.25</ele><time>2026-04-28T09:23:06.858Z</time></trkpt><trkpt lat="39.35992774387468" lon="9.100569313935067"><ele>128.0</ele><time>2026-04-28T09:23:07.858Z</time></trkpt><trkpt lat="39.359978408986485" lon="9.100740715814966"><ele>129.5</ele><time>2026-04-28T09:23:08.858Z</time></trkpt><trkpt lat="39.36002774743869" lon="9.10090398607144"><ele>131.0</ele><time>2026-04-28T09:23:09.858Z</time></trkpt><trkpt lat="39.36007584900371" lon="9.101074877387026"><ele>132.5</ele><time>2026-04-28T09:23:10.858Z</time></trkpt><trkpt lat="39.36011862068079" lon="9.101252952663307"><ele>134.0</ele><time>2026-04-28T09:23:11.858Z</time></trkpt><trkpt lat="39.36014791145173" lon="9.101414003878991"><ele>134.0</ele><time>2026-04-28T09:23:12.858Z</time></trkpt><trkpt lat="39.36016708671062" lon="9.10157368212298"><ele>134.0</ele><time>2026-04-28T09:23:13.858Z</time></trkpt><trkpt lat="39.360181572818874" lon="9.101740466408543"><ele>134.0</ele><time>2026-04-28T09:23:14.858Z</time></trkpt><trkpt lat="39.360197404705346" lon="9.101911693390178"><ele>134.0</ele><time>2026-04-28T09:23:15.858Z</time></trkpt><trkpt lat="39.36021443724752" lon="9.102072544301684"><ele>133.75</ele><time>2026-04-28T09:23:16.858Z</time></trkpt><trkpt lat="39.36025118653335" lon="9.102236600604643"><ele>133.5</ele><time>2026-04-28T09:23:17.858Z</time></trkpt><trkpt lat="39.3603046865416" lon="9.102407165311002"><ele>133.25</ele><time>2026-04-28T09:23:18.858Z</time></trkpt><trkpt lat="39.360371550452946" lon="9.102580605317714"><ele>133.0</ele><time>2026-04-28T09:23:19.858Z</time></trkpt><trkpt lat="39.36043627102689" lon="9.102748371902898"><ele>132.25</ele><time>2026-04-28T09:23:20.858Z</time></trkpt><trkpt lat="39.36050318920978" lon="9.102920555867811"><ele>131.5</ele><time>2026-04-28T09:23:21.858Z</time></trkpt><trkpt lat="39.36057470827594" lon="9.103094299733508"><ele>130.75</ele><time>2026-04-28T09:23:22.858Z</time></trkpt><trkpt lat="39.360645152781984" lon="9.10325884230275"><ele>130.0</ele><time>2026-04-28T09:23:23.857Z</time></trkpt><trkpt lat="39.36072226900432" lon="9.10343050698764"><ele>129.75</ele><time>2026-04-28T09:23:24.857Z</time></trkpt><trkpt lat="39.36079621600175" lon="9.10360071663123"><ele>129.5</ele><time>2026-04-28T09:23:25.857Z</time></trkpt><trkpt lat="39.360867520054505" lon="9.10376249151711"><ele>129.25</ele><time>2026-04-28T09:23:26.857Z</time></trkpt><trkpt lat="39.360937233611544" lon="9.103921820259052"><ele>129.0</ele><time>2026-04-28T09:23:27.857Z</time></trkpt><trkpt lat="39.36100385639857" lon="9.104077463970881"><ele>128.75</ele><time>2026-04-28T09:23:28.857Z</time></trkpt><trkpt lat="39.361061634615034" lon="9.104235102755542"><ele>128.5</ele><time>2026-04-28T09:23:29.857Z</time></trkpt><trkpt lat="39.36111530150106" lon="9.104400299484867"><ele>128.25</ele><time>2026-04-28T09:23:30.857Z</time></trkpt><trkpt lat="39.36116213493944" lon="9.104571166199394"><ele>128.0</ele><time>2026-04-28T09:23:31.857Z</time></trkpt><trkpt lat="39.36120027440154" lon="9.104756044863974"><ele>128.33333333333331</ele><time>2026-04-28T09:23:32.857Z</time></trkpt><trkpt lat="39.36123975479847" lon="9.104970978760976"><ele>128.66666666666666</ele><time>2026-04-28T09:23:33.857Z</time></trkpt><trkpt lat="39.361271093664456" lon="9.10521653890107"><ele>129.0</ele><time>2026-04-28T09:23:34.857Z</time></trkpt><trkpt lat="39.361296770944605" lon="9.105481331728809"><ele>129.0</ele><time>2026-04-28T09:23:35.856Z</time></trkpt><trkpt lat="39.36132445233423" lon="9.10558290365791"><ele>129.0</ele><time>2026-04-28T09:23:37.857Z</time></trkpt><trkpt lat="39.36135916560607" lon="9.105749103136244"><ele>129.0</ele><time>2026-04-28T09:23:38.857Z</time></trkpt><trkpt lat="39.36141273931359" lon="9.105915353556036"><ele>129.0</ele><time>2026-04-28T09:23:39.857Z</time></trkpt><trkpt lat="39.361463596363954" lon="9.106091059056942"><ele>129.25</ele><time>2026-04-28T09:23:40.857Z</time></trkpt><trkpt lat="39.361515724172406" lon="9.106272179839243"><ele>129.5</ele><time>2026-04-28T09:23:41.857Z</time></trkpt><trkpt lat="39.36154542108592" lon="9.106457658149473"><ele>129.75</ele><time>2026-04-28T09:23:42.857Z</time></trkpt><trkpt lat="39.361589894008674" lon="9.106630844254651"><ele>130.0</ele><time>2026-04-28T09:23:43.857Z</time></trkpt><trkpt lat="39.36165261854204" lon="9.10679497994749"><ele>129.25</ele><time>2026-04-28T09:23:44.857Z</time></trkpt><trkpt lat="39.361730907045725" lon="9.106949694521619"><ele>128.5</ele><time>2026-04-28T09:23:45.857Z</time></trkpt><trkpt lat="39.36180159229622" lon="9.107107928640133"><ele>127.75</ele><time>2026-04-28T09:23:46.857Z</time></trkpt><trkpt lat="39.36187816816382" lon="9.10725683948421"><ele>127.0</ele><time>2026-04-28T09:23:47.858Z</time></trkpt><trkpt lat="39.361944944812194" lon="9.107387410135203"><ele>126.75</ele><time>2026-04-28T09:23:48.858Z</time></trkpt><trkpt lat="39.36198962840773" lon="9.107520501867771"><ele>126.5</ele><time>2026-04-28T09:23:49.858Z</time></trkpt><trkpt lat="39.36205294497127" lon="9.10764010453922"><ele>126.25</ele><time>2026-04-28T09:23:50.858Z</time></trkpt><trkpt lat="39.362061168432305" lon="9.107794335926261"><ele>126.0</ele><time>2026-04-28T09:23:51.858Z</time></trkpt><trkpt lat="39.362095321337655" lon="9.107956751810791"><ele>126.0</ele><time>2026-04-28T09:23:52.858Z</time></trkpt><trkpt lat="39.362133791608805" lon="9.108127216978184"><ele>126.0</ele><time>2026-04-28T09:23:53.858Z</time></trkpt><trkpt lat="39.362177079500306" lon="9.108304811004237"><ele>126.0</ele><time>2026-04-28T09:23:54.858Z</time></trkpt><trkpt lat="39.36223060388344" lon="9.108475846897502"><ele>126.0</ele><time>2026-04-28T09:23:55.858Z</time></trkpt><trkpt lat="39.36230540523456" lon="9.10863862515724"><ele>126.25</ele><time>2026-04-28T09:23:56.858Z</time></trkpt><trkpt lat="39.36236783223779" lon="9.108808791621701"><ele>126.5</ele><time>2026-04-28T09:23:57.858Z</time></trkpt><trkpt lat="39.36244293985481" lon="9.108972745778653"><ele>126.75</ele><time>2026-04-28T09:23:58.858Z</time></trkpt><trkpt lat="39.362519233256926" lon="9.109126519777238"><ele>127.0</ele><time>2026-04-28T09:23:59.858Z</time></trkpt><trkpt lat="39.362608572407204" lon="9.109286753232661"><ele>127.0</ele><time>2026-04-28T09:24:00.858Z</time></trkpt><trkpt lat="39.36270002267197" lon="9.109440879408709"><ele>127.0</ele><time>2026-04-28T09:24:01.858Z</time></trkpt><trkpt lat="39.36280122800035" lon="9.109594536981376"><ele>127.0</ele><time>2026-04-28T09:24:02.858Z</time></trkpt><trkpt lat="39.36290293120081" lon="9.109745370338741"><ele>127.0</ele><time>2026-04-28T09:24:03.858Z</time></trkpt><trkpt lat="39.363009159103264" lon="9.109892733520843"><ele>127.0</ele><time>2026-04-28T09:24:04.858Z</time></trkpt><trkpt lat="39.36311994217305" lon="9.110024889457195"><ele>127.0</ele><time>2026-04-28T09:24:05.858Z</time></trkpt><trkpt lat="39.36323295440618" lon="9.110149449182874"><ele>127.66666666666667</ele><time>2026-04-28T09:24:06.858Z</time></trkpt><trkpt lat="39.36334974087152" lon="9.110285751954457"><ele>128.33333333333334</ele><time>2026-04-28T09:24:07.858Z</time></trkpt><trkpt lat="39.36347425214608" lon="9.110428593851342"><ele>129.0</ele><time>2026-04-28T09:24:08.858Z</time></trkpt><trkpt lat="39.363601128688764" lon="9.110570727792709"><ele>129.0</ele><time>2026-04-28T09:24:09.858Z</time></trkpt><trkpt lat="39.36372590312879" lon="9.11071588080919"><ele>129.0</ele><time>2026-04-28T09:24:10.858Z</time></trkpt><trkpt lat="39.36384544828538" lon="9.110866418425811"><ele>129.0</ele><time>2026-04-28T09:24:11.858Z</time></trkpt><trkpt lat="39.36396786184222" lon="9.111016761745812"><ele>129.66666666666666</ele><time>2026-04-28T09:24:12.858Z</time></trkpt><trkpt lat="39.364090494514286" lon="9.111168005955959"><ele>130.33333333333331</ele><time>2026-04-28T09:24:13.858Z</time></trkpt><trkpt lat="39.36421291903191" lon="9.111319429098307"><ele>131.0</ele><time>2026-04-28T09:24:14.858Z</time></trkpt><trkpt lat="39.36433762507233" lon="9.111472981990298"><ele>131.0</ele><time>2026-04-28T09:24:15.858Z</time></trkpt><trkpt lat="39.36446098505864" lon="9.111618757235123"><ele>131.0</ele><time>2026-04-28T09:24:16.858Z</time></trkpt><trkpt lat="39.36458183568343" lon="9.111771706907945"><ele>131.0</ele><time>2026-04-28T09:24:17.858Z</time></trkpt><trkpt lat="39.36470342463724" lon="9.111918860956568"><ele>132.25</ele><time>2026-04-28T09:24:18.858Z</time></trkpt><trkpt lat="39.36481229974887" lon="9.112059411454943"><ele>133.5</ele><time>2026-04-28T09:24:19.858Z</time></trkpt><trkpt lat="39.36490619265797" lon="9.11219505283705"><ele>134.75</ele><time>2026-04-28T09:24:20.858Z</time></trkpt><trkpt lat="39.364982049552545" lon="9.112312767992428"><ele>136.0</ele><time>2026-04-28T09:24:21.858Z</time></trkpt><trkpt lat="39.36504271946687" lon="9.112444743882705"><ele>136.0</ele><time>2026-04-28T09:24:22.858Z</time></trkpt><trkpt lat="39.365087149326904" lon="9.112599409472303"><ele>136.0</ele><time>2026-04-28T09:24:23.858Z</time></trkpt><trkpt lat="39.365126777697206" lon="9.112778620032048"><ele>136.0</ele><time>2026-04-28T09:24:24.858Z</time></trkpt><trkpt lat="39.365164161250206" lon="9.112970676471324"><ele>136.0</ele><time>2026-04-28T09:24:25.858Z</time></trkpt><trkpt lat="39.36521096652185" lon="9.113162296438334"><ele>135.5</ele><time>2026-04-28T09:24:26.858Z</time></trkpt><trkpt lat="39.365270126991156" lon="9.113339320644318"><ele>135.0</ele><time>2026-04-28T09:24:27.858Z</time></trkpt><trkpt lat="39.36534513354568" lon="9.113501719580329"><ele>134.5</ele><time>2026-04-28T09:24:28.858Z</time></trkpt><trkpt lat="39.3654340323906" lon="9.11365747245079"><ele>134.0</ele><time>2026-04-28T09:24:29.858Z</time></trkpt><trkpt lat="39.365532931015636" lon="9.11379440223766"><ele>134.0</ele><time>2026-04-28T09:24:30.858Z</time></trkpt><trkpt lat="39.365640595243704" lon="9.113934081829097"><ele>134.0</ele><time>2026-04-28T09:24:31.858Z</time></trkpt><trkpt lat="39.365751255190844" lon="9.11408379035912"><ele>134.0</ele><time>2026-04-28T09:24:32.858Z</time></trkpt><trkpt lat="39.365858622125906" lon="9.114245194310445"><ele>133.0</ele><time>2026-04-28T09:24:33.858Z</time></trkpt><trkpt lat="39.36596811730781" lon="9.114414862832547"><ele>132.0</ele><time>2026-04-28T09:24:34.858Z</time></trkpt><trkpt lat="39.36607264859982" lon="9.114581533849195"><ele>131.0</ele><time>2026-04-28T09:24:35.858Z</time></trkpt><trkpt lat="39.36616734771026" lon="9.114739668748031"><ele>131.0</ele><time>2026-04-28T09:24:36.858Z</time></trkpt><trkpt lat="39.36625889874734" lon="9.114900674041428"><ele>131.0</ele><time>2026-04-28T09:24:37.858Z</time></trkpt><trkpt lat="39.36635233743665" lon="9.11506005786235"><ele>131.0</ele><time>2026-04-28T09:24:38.858Z</time></trkpt><trkpt lat="39.36644315404861" lon="9.115217456676383"><ele>130.25</ele><time>2026-04-28T09:24:39.858Z</time></trkpt><trkpt lat="39.36653415334542" lon="9.115372818139504"><ele>129.5</ele><time>2026-04-28T09:24:40.858Z</time></trkpt><trkpt lat="39.36662637639618" lon="9.115520546341026"><ele>128.75</ele><time>2026-04-28T09:24:41.858Z</time></trkpt><trkpt lat="39.36671996617265" lon="9.115668841843792"><ele>128.0</ele><time>2026-04-28T09:24:42.858Z</time></trkpt><trkpt lat="39.366819894755125" lon="9.115827121530112"><ele>127.33333333333333</ele><time>2026-04-28T09:24:43.858Z</time></trkpt><trkpt lat="39.36692026350216" lon="9.115989671570022"><ele>126.66666666666666</ele><time>2026-04-28T09:24:44.858Z</time></trkpt><trkpt lat="39.36702198034161" lon="9.116153274784033"><ele>126.0</ele><time>2026-04-28T09:24:45.858Z</time></trkpt><trkpt lat="39.367119215195416" lon="9.11631348791275"><ele>126.0</ele><time>2026-04-28T09:24:46.858Z</time></trkpt><trkpt lat="39.367211154006135" lon="9.116479231757895"><ele>126.0</ele><time>2026-04-28T09:24:47.858Z</time></trkpt><trkpt lat="39.36730095324983" lon="9.11665424064499"><ele>126.0</ele><time>2026-04-28T09:24:48.858Z</time></trkpt><trkpt lat="39.367375647724" lon="9.116850203152644"><ele>126.0</ele><time>2026-04-28T09:24:49.858Z</time></trkpt><trkpt lat="39.36746233156094" lon="9.117027666660142"><ele>126.0</ele><time>2026-04-28T09:24:50.858Z</time></trkpt><trkpt lat="39.36756161712834" lon="9.117188484106093"><ele>126.0</ele><time>2026-04-28T09:24:51.858Z</time></trkpt><trkpt lat="39.36765639336422" lon="9.117356003031642"><ele>125.33333333333334</ele><time>2026-04-28T09:24:52.858Z</time></trkpt><trkpt lat="39.36776116630737" lon="9.117520106324077"><ele>124.66666666666667</ele><time>2026-04-28T09:24:53.858Z</time></trkpt><trkpt lat="39.367870121571436" lon="9.117677037937897"><ele>124.0</ele><time>2026-04-28T09:24:54.858Z</time></trkpt><trkpt lat="39.367985408423706" lon="9.117837046732678"><ele>125.0</ele><time>2026-04-28T09:24:55.858Z</time></trkpt><trkpt lat="39.36809846183991" lon="9.117995873416618"><ele>126.0</ele><time>2026-04-28T09:24:56.858Z</time></trkpt><trkpt lat="39.36820982161345" lon="9.118152661071951"><ele>127.0</ele><time>2026-04-28T09:24:57.858Z</time></trkpt><trkpt lat="39.36831683136756" lon="9.118299369863456"><ele>127.0</ele><time>2026-04-28T09:24:58.858Z</time></trkpt><trkpt lat="39.36842224975244" lon="9.118435503577015"><ele>127.0</ele><time>2026-04-28T09:24:59.858Z</time></trkpt><trkpt lat="39.3685299317455" lon="9.118571454515997"><ele>127.0</ele><time>2026-04-28T09:25:00.858Z</time></trkpt><trkpt lat="39.368637733085436" lon="9.118704340884761"><ele>127.0</ele><time>2026-04-28T09:25:01.858Z</time></trkpt><trkpt lat="39.36874663409015" lon="9.118844915567381"><ele>127.0</ele><time>2026-04-28T09:25:02.858Z</time></trkpt><trkpt lat="39.368846747152105" lon="9.118992455158116"><ele>127.0</ele><time>2026-04-28T09:25:03.858Z</time></trkpt><trkpt lat="39.36892256659686" lon="9.119172258163463"><ele>127.0</ele><time>2026-04-28T09:25:04.858Z</time></trkpt><trkpt lat="39.36900148463083" lon="9.119346230556836"><ele>127.33333333333334</ele><time>2026-04-28T09:25:05.858Z</time></trkpt><trkpt lat="39.369093176247105" lon="9.119521269061844"><ele>127.66666666666666</ele><time>2026-04-28T09:25:06.858Z</time></trkpt><trkpt lat="39.369170135013924" lon="9.119705527503616"><ele>128.0</ele><time>2026-04-28T09:25:07.858Z</time></trkpt><trkpt lat="39.36923692935709" lon="9.11988941352013"><ele>128.0</ele><time>2026-04-28T09:25:08.858Z</time></trkpt><trkpt lat="39.36929154363723" lon="9.120081134397992"><ele>128.0</ele><time>2026-04-28T09:25:09.858Z</time></trkpt><trkpt lat="39.36933926513817" lon="9.120275388102913"><ele>128.0</ele><time>2026-04-28T09:25:10.858Z</time></trkpt><trkpt lat="39.36938597341306" lon="9.120467751480733"><ele>128.0</ele><time>2026-04-28T09:25:11.858Z</time></trkpt><trkpt lat="39.36942974615596" lon="9.120649757937095"><ele>128.0</ele><time>2026-04-28T09:25:12.858Z</time></trkpt><trkpt lat="39.3694645773903" lon="9.120815923594702"><ele>128.0</ele><time>2026-04-28T09:25:13.858Z</time></trkpt><trkpt lat="39.3694894118026" lon="9.120967861519597"><ele>128.0</ele><time>2026-04-28T09:25:14.858Z</time></trkpt><trkpt lat="39.36949526535893" lon="9.121103141409545"><ele>127.75</ele><time>2026-04-28T09:25:15.858Z</time></trkpt><trkpt lat="39.36948105424075" lon="9.121233212021686"><ele>127.5</ele><time>2026-04-28T09:25:16.858Z</time></trkpt><trkpt lat="39.36944549058764" lon="9.121369589372312"><ele>127.25</ele><time>2026-04-28T09:25:17.858Z</time></trkpt><trkpt lat="39.36937194477597" lon="9.121491594981864"><ele>127.0</ele><time>2026-04-28T09:25:18.858Z</time></trkpt><trkpt lat="39.369316988925576" lon="9.121632093439644"><ele>127.0</ele><time>2026-04-28T09:25:19.858Z</time></trkpt><trkpt lat="39.36924419813031" lon="9.121772349068818"><ele>127.0</ele><time>2026-04-28T09:25:20.858Z</time></trkpt><trkpt lat="39.369172634299716" lon="9.121916300964317"><ele>127.0</ele><time>2026-04-28T09:25:21.859Z</time></trkpt><trkpt lat="39.36909961427843" lon="9.122056861036908"><ele>127.0</ele><time>2026-04-28T09:25:22.859Z</time></trkpt><trkpt lat="39.369023040839394" lon="9.122194023841143"><ele>127.0</ele><time>2026-04-28T09:25:23.859Z</time></trkpt><trkpt lat="39.36895485135796" lon="9.122326637181537"><ele>127.0</ele><time>2026-04-28T09:25:24.859Z</time></trkpt><trkpt lat="39.36890977339768" lon="9.122460483024009"><ele>127.0</ele><time>2026-04-28T09:25:25.859Z</time></trkpt><trkpt lat="39.368883352919035" lon="9.122603192445222"><ele>127.0</ele><time>2026-04-28T09:25:26.859Z</time></trkpt><trkpt lat="39.36886517943641" lon="9.12275374531616"><ele>126.25</ele><time>2026-04-28T09:25:27.859Z</time></trkpt><trkpt lat="39.36884879776305" lon="9.122927261014969"><ele>125.5</ele><time>2026-04-28T09:25:28.859Z</time></trkpt><trkpt lat="39.368818737335395" lon="9.123096063511166"><ele>124.75</ele><time>2026-04-28T09:25:29.857Z</time></trkpt><trkpt lat="39.36877718855182" lon="9.123274929794103"><ele>124.0</ele><time>2026-04-28T09:25:30.856Z</time></trkpt><trkpt lat="39.36872346346259" lon="9.123457814929798"><ele>123.75</ele><time>2026-04-28T09:25:31.856Z</time></trkpt><trkpt lat="39.368682818626326" lon="9.123637062772815"><ele>123.5</ele><time>2026-04-28T09:25:32.857Z</time></trkpt><trkpt lat="39.36864157994299" lon="9.123810364787998"><ele>123.25</ele><time>2026-04-28T09:25:33.857Z</time></trkpt><trkpt lat="39.36860868251649" lon="9.123981375553267"><ele>123.0</ele><time>2026-04-28T09:25:34.857Z</time></trkpt><trkpt lat="39.36857606919991" lon="9.124143724115774"><ele>122.80000000000001</ele><time>2026-04-28T09:25:35.857Z</time></trkpt><trkpt lat="39.368563950077636" lon="9.12429752528172"><ele>122.60000000000001</ele><time>2026-04-28T09:25:36.857Z</time></trkpt><trkpt lat="39.36855415143086" lon="9.124430952461216"><ele>122.39999999999999</ele><time>2026-04-28T09:25:37.857Z</time></trkpt><trkpt lat="39.36857834247382" lon="9.12455179289044"><ele>122.19999999999999</ele><time>2026-04-28T09:25:38.857Z</time></trkpt><trkpt lat="39.368617232252554" lon="9.12467276354386"><ele>122.0</ele><time>2026-04-28T09:25:39.857Z</time></trkpt><trkpt lat="39.36867145214363" lon="9.124791715201805"><ele>122.0</ele><time>2026-04-28T09:25:40.857Z</time></trkpt><trkpt lat="39.368738273466214" lon="9.12491310273052"><ele>122.0</ele><time>2026-04-28T09:25:41.857Z</time></trkpt><trkpt lat="39.368821601557826" lon="9.125051341103394"><ele>122.0</ele><time>2026-04-28T09:25:42.856Z</time></trkpt><trkpt lat="39.36890807199646" lon="9.125203071439175"><ele>122.0</ele><time>2026-04-28T09:25:43.856Z</time></trkpt><trkpt lat="39.368997519328396" lon="9.125355012724423"><ele>122.0</ele><time>2026-04-28T09:25:44.856Z</time></trkpt><trkpt lat="39.36907659132859" lon="9.125510653746165"><ele>122.0</ele><time>2026-04-28T09:25:45.856Z</time></trkpt><trkpt lat="39.36915691685296" lon="9.125673278775032"><ele>122.0</ele><time>2026-04-28T09:25:46.856Z</time></trkpt><trkpt lat="39.36923918528872" lon="9.125847146959956"><ele>122.0</ele><time>2026-04-28T09:25:47.856Z</time></trkpt><trkpt lat="39.36931162911994" lon="9.126020606874539"><ele>122.0</ele><time>2026-04-28T09:25:48.856Z</time></trkpt><trkpt lat="39.369384967759835" lon="9.126183143887616"><ele>122.0</ele><time>2026-04-28T09:25:49.856Z</time></trkpt><trkpt lat="39.36944995713776" lon="9.126364856235119"><ele>122.0</ele><time>2026-04-28T09:25:50.857Z</time></trkpt><trkpt lat="39.36951375504028" lon="9.126533296839234"><ele>122.0</ele><time>2026-04-28T09:25:51.857Z</time></trkpt><trkpt lat="39.36957483152406" lon="9.126723322374927"><ele>122.0</ele><time>2026-04-28T09:25:52.857Z</time></trkpt><trkpt lat="39.369632660627424" lon="9.126900099021894"><ele>122.0</ele><time>2026-04-28T09:25:53.857Z</time></trkpt><trkpt lat="39.36968769600792" lon="9.127084533903023"><ele>122.0</ele><time>2026-04-28T09:25:54.857Z</time></trkpt><trkpt lat="39.369748545867324" lon="9.127251406847813"><ele>122.0</ele><time>2026-04-28T09:25:55.857Z</time></trkpt><trkpt lat="39.36980701278449" lon="9.127431956111423"><ele>122.0</ele><time>2026-04-28T09:25:56.857Z</time></trkpt><trkpt lat="39.36986451679072" lon="9.127605522748107"><ele>123.0</ele><time>2026-04-28T09:25:57.857Z</time></trkpt><trkpt lat="39.369922868664425" lon="9.127783152998225"><ele>124.0</ele><time>2026-04-28T09:25:58.857Z</time></trkpt><trkpt lat="39.36998209453011" lon="9.12796457883098"><ele>125.0</ele><time>2026-04-28T09:25:59.857Z</time></trkpt><trkpt lat="39.370041675814704" lon="9.128148345512962"><ele>124.5</ele><time>2026-04-28T09:26:00.857Z</time></trkpt><trkpt lat="39.37009850857094" lon="9.128321324424206"><ele>124.0</ele><time>2026-04-28T09:26:01.857Z</time></trkpt><trkpt lat="39.3701526886424" lon="9.128500452288186"><ele>123.5</ele><time>2026-04-28T09:26:02.857Z</time></trkpt><trkpt lat="39.370203497586886" lon="9.128674809893704"><ele>123.0</ele><time>2026-04-28T09:26:03.857Z</time></trkpt><trkpt lat="39.370257756453576" lon="9.128831588079114"><ele>123.0</ele><time>2026-04-28T09:26:04.857Z</time></trkpt><trkpt lat="39.37030202271245" lon="9.129003705249517"><ele>123.0</ele><time>2026-04-28T09:26:05.857Z</time></trkpt><trkpt lat="39.37032682415963" lon="9.12917052304903"><ele>123.0</ele><time>2026-04-28T09:26:06.857Z</time></trkpt><trkpt lat="39.370343736416565" lon="9.129359399239233"><ele>123.0</ele><time>2026-04-28T09:26:07.857Z</time></trkpt><trkpt lat="39.37034419992589" lon="9.129541759673579"><ele>123.5</ele><time>2026-04-28T09:26:08.857Z</time></trkpt><trkpt lat="39.3703459219649" lon="9.129727085893407"><ele>124.0</ele><time>2026-04-28T09:26:09.857Z</time></trkpt><trkpt lat="39.370343993575595" lon="9.129916332062782"><ele>124.5</ele><time>2026-04-28T09:26:10.857Z</time></trkpt><trkpt lat="39.37033082467684" lon="9.13010007359506"><ele>125.0</ele><time>2026-04-28T09:26:11.857Z</time></trkpt><trkpt lat="39.37031364947278" lon="9.130277291058986"><ele>125.0</ele><time>2026-04-28T09:26:12.857Z</time></trkpt><trkpt lat="39.37029257554532" lon="9.130464214500526"><ele>125.0</ele><time>2026-04-28T09:26:13.857Z</time></trkpt><trkpt lat="39.37027879047905" lon="9.130635827868277"><ele>125.0</ele><time>2026-04-28T09:26:14.857Z</time></trkpt><trkpt lat="39.370270606200044" lon="9.130811573938045"><ele>125.0</ele><time>2026-04-28T09:26:15.857Z</time></trkpt><trkpt lat="39.3702777191935" lon="9.130982718811948"><ele>125.0</ele><time>2026-04-28T09:26:16.857Z</time></trkpt><trkpt lat="39.370286506867764" lon="9.13114464233882"><ele>125.0</ele><time>2026-04-28T09:26:17.857Z</time></trkpt><trkpt lat="39.37030819879745" lon="9.131293202031289"><ele>125.0</ele><time>2026-04-28T09:26:18.857Z</time></trkpt><trkpt lat="39.37032448440703" lon="9.131405383893206"><ele>125.0</ele><time>2026-04-28T09:26:19.857Z</time></trkpt><trkpt lat="39.370332178947244" lon="9.131508367169188"><ele>125.0</ele><time>2026-04-28T09:26:20.857Z</time></trkpt><trkpt lat="39.37035013938861" lon="9.13161565983219"><ele>124.75</ele><time>2026-04-28T09:26:21.857Z</time></trkpt><trkpt lat="39.37036229240285" lon="9.131742235049055"><ele>124.5</ele><time>2026-04-28T09:26:22.857Z</time></trkpt><trkpt lat="39.37036789674826" lon="9.131880907340589"><ele>124.25</ele><time>2026-04-28T09:26:23.857Z</time></trkpt><trkpt lat="39.370357217123825" lon="9.132031314850407"><ele>124.0</ele><time>2026-04-28T09:26:24.857Z</time></trkpt><trkpt lat="39.37032844729711" lon="9.13220739143479"><ele>124.0</ele><time>2026-04-28T09:26:25.857Z</time></trkpt><trkpt lat="39.37028789052306" lon="9.132372630671206"><ele>124.0</ele><time>2026-04-28T09:26:26.857Z</time></trkpt><trkpt lat="39.3702261096433" lon="9.132531980100634"><ele>124.0</ele><time>2026-04-28T09:26:27.857Z</time></trkpt><trkpt lat="39.37017416914407" lon="9.132677311067091"><ele>124.0</ele><time>2026-04-28T09:26:28.857Z</time></trkpt><trkpt lat="39.37012067284599" lon="9.13282732416738"><ele>124.25</ele><time>2026-04-28T09:26:29.857Z</time></trkpt><trkpt lat="39.37008061180228" lon="9.132988113973111"><ele>124.5</ele><time>2026-04-28T09:26:30.857Z</time></trkpt><trkpt lat="39.37003548117432" lon="9.133151936132432"><ele>124.75</ele><time>2026-04-28T09:26:31.857Z</time></trkpt><trkpt lat="39.37000658539797" lon="9.133318790471808"><ele>125.0</ele><time>2026-04-28T09:26:32.857Z</time></trkpt><trkpt lat="39.36997088121748" lon="9.133491349659046"><ele>124.5</ele><time>2026-04-28T09:26:33.857Z</time></trkpt><trkpt lat="39.36995064115563" lon="9.133665350705234"><ele>124.0</ele><time>2026-04-28T09:26:34.857Z</time></trkpt><trkpt lat="39.36993783109128" lon="9.133836643209307"><ele>123.5</ele><time>2026-04-28T09:26:35.857Z</time></trkpt><trkpt lat="39.36995049462089" lon="9.133994215489887"><ele>123.0</ele><time>2026-04-28T09:26:36.857Z</time></trkpt><trkpt lat="39.36995324096381" lon="9.134137107241303"><ele>122.5</ele><time>2026-04-28T09:26:37.857Z</time></trkpt><trkpt lat="39.36996876561989" lon="9.13428981706285"><ele>122.0</ele><time>2026-04-28T09:26:38.857Z</time></trkpt><trkpt lat="39.369956847398186" lon="9.134469137810305"><ele>121.5</ele><time>2026-04-28T09:26:39.857Z</time></trkpt><trkpt lat="39.370012811492785" lon="9.134629883573556"><ele>121.0</ele><time>2026-04-28T09:26:40.857Z</time></trkpt><trkpt lat="39.370070220010675" lon="9.134792875050762"><ele>120.25</ele><time>2026-04-28T09:26:41.857Z</time></trkpt><trkpt lat="39.3701290770146" lon="9.134961664374755"><ele>119.5</ele><time>2026-04-28T09:26:42.857Z</time></trkpt><trkpt lat="39.37018005462477" lon="9.135140447384416"><ele>118.75</ele><time>2026-04-28T09:26:43.857Z</time></trkpt><trkpt lat="39.37024423211626" lon="9.135311442292378"><ele>118.0</ele><time>2026-04-28T09:26:44.857Z</time></trkpt><trkpt lat="39.3703102137615" lon="9.135482315558656"><ele>118.0</ele><time>2026-04-28T09:26:45.857Z</time></trkpt><trkpt lat="39.370374879519346" lon="9.135655782960711"><ele>118.0</ele><time>2026-04-28T09:26:46.857Z</time></trkpt><trkpt lat="39.37043829003571" lon="9.135819654788891"><ele>118.0</ele><time>2026-04-28T09:26:47.857Z</time></trkpt><trkpt lat="39.37049813053122" lon="9.135986194601827"><ele>118.0</ele><time>2026-04-28T09:26:48.857Z</time></trkpt><trkpt lat="39.37054418166735" lon="9.136150465913524"><ele>118.0</ele><time>2026-04-28T09:26:49.857Z</time></trkpt><trkpt lat="39.37057526190909" lon="9.13632907825609"><ele>118.0</ele><time>2026-04-28T09:26:50.857Z</time></trkpt><trkpt lat="39.37059949006751" lon="9.136509226535706"><ele>118.0</ele><time>2026-04-28T09:26:51.857Z</time></trkpt><trkpt lat="39.37062113392126" lon="9.136700742678295"><ele>118.0</ele><time>2026-04-28T09:26:52.857Z</time></trkpt><trkpt lat="39.37065015980149" lon="9.136891282764234"><ele>118.33333333333334</ele><time>2026-04-28T09:26:53.857Z</time></trkpt><trkpt lat="39.370678938801774" lon="9.137082254640497"><ele>118.66666666666666</ele><time>2026-04-28T09:26:54.857Z</time></trkpt><trkpt lat="39.37069771883089" lon="9.137278638413719"><ele>119.0</ele><time>2026-04-28T09:26:55.857Z</time></trkpt><trkpt lat="39.370704711073564" lon="9.137481657040848"><ele>119.33333333333333</ele><time>2026-04-28T09:26:56.857Z</time></trkpt><trkpt lat="39.37072288973227" lon="9.137671983901635"><ele>119.66666666666666</ele><time>2026-04-28T09:26:57.857Z</time></trkpt><trkpt lat="39.37075664238214" lon="9.13787179087363"><ele>120.0</ele><time>2026-04-28T09:26:58.857Z</time></trkpt><trkpt lat="39.37077547413602" lon="9.138096801013072"><ele>120.66666666666666</ele><time>2026-04-28T09:26:59.857Z</time></trkpt><trkpt lat="39.370775017509104" lon="9.138332987123562"><ele>121.33333333333333</ele><time>2026-04-28T09:27:00.857Z</time></trkpt><trkpt lat="39.370787317365334" lon="9.138576954215788"><ele>122.0</ele><time>2026-04-28T09:27:01.857Z</time></trkpt><trkpt lat="39.370809813982696" lon="9.138845502694233"><ele>123.33333333333333</ele><time>2026-04-28T09:27:02.857Z</time></trkpt><trkpt lat="39.37081778519499" lon="9.13909016270654"><ele>124.66666666666666</ele><time>2026-04-28T09:27:03.857Z</time></trkpt><trkpt lat="39.370835517103146" lon="9.139340450348818"><ele>126.0</ele><time>2026-04-28T09:27:04.857Z</time></trkpt><trkpt lat="39.37085119876917" lon="9.139593220900197"><ele>126.0</ele><time>2026-04-28T09:27:05.857Z</time></trkpt><trkpt lat="39.3708728173604" lon="9.139844309695462"><ele>126.0</ele><time>2026-04-28T09:27:06.857Z</time></trkpt><trkpt lat="39.37089381858846" lon="9.14009892252068"><ele>126.0</ele><time>2026-04-28T09:27:07.857Z</time></trkpt><trkpt lat="39.370921994882806" lon="9.140354670854043"><ele>128.33333333333334</ele><time>2026-04-28T09:27:08.857Z</time></trkpt><trkpt lat="39.37094389392837" lon="9.140610666893165"><ele>130.66666666666669</ele><time>2026-04-28T09:27:09.857Z</time></trkpt><trkpt lat="39.37096228287492" lon="9.140864783248848"><ele>133.0</ele><time>2026-04-28T09:27:10.857Z</time></trkpt><trkpt lat="39.37098196555883" lon="9.141118197871101"><ele>134.0</ele><time>2026-04-28T09:27:11.857Z</time></trkpt><trkpt lat="39.371006089980966" lon="9.141375793995339"><ele>135.0</ele><time>2026-04-28T09:27:12.857Z</time></trkpt><trkpt lat="39.37103308550376" lon="9.141642364978114"><ele>136.0</ele><time>2026-04-28T09:27:13.857Z</time></trkpt><trkpt lat="39.37105817932319" lon="9.141900051724166"><ele>136.33333333333334</ele><time>2026-04-28T09:27:14.857Z</time></trkpt><trkpt lat="39.371088136677024" lon="9.142139445627107"><ele>136.66666666666666</ele><time>2026-04-28T09:27:15.857Z</time></trkpt><trkpt lat="39.37110696124504" lon="9.142370004071028"><ele>137.0</ele><time>2026-04-28T09:27:16.857Z</time></trkpt><trkpt lat="39.37112609573921" lon="9.142582646525756"><ele>136.33333333333331</ele><time>2026-04-28T09:27:17.857Z</time></trkpt><trkpt lat="39.37111327388857" lon="9.14278886139754"><ele>135.66666666666666</ele><time>2026-04-28T09:27:18.857Z</time></trkpt><trkpt lat="39.37109452716319" lon="9.142985842995019"><ele>135.0</ele><time>2026-04-28T09:27:19.857Z</time></trkpt><trkpt lat="39.37105681727083" lon="9.143181458611679"><ele>135.66666666666666</ele><time>2026-04-28T09:27:20.857Z</time></trkpt><trkpt lat="39.37101282096449" lon="9.143389595894183"><ele>136.33333333333331</ele><time>2026-04-28T09:27:21.857Z</time></trkpt><trkpt lat="39.3709712141881" lon="9.14359232563686"><ele>137.0</ele><time>2026-04-28T09:27:22.857Z</time></trkpt><trkpt lat="39.37094262923999" lon="9.143809077230072"><ele>137.0</ele><time>2026-04-28T09:27:23.857Z</time></trkpt><trkpt lat="39.37089607009821" lon="9.144015210345787"><ele>137.0</ele><time>2026-04-28T09:27:24.858Z</time></trkpt><trkpt lat="39.370864513303594" lon="9.144192266456846"><ele>137.0</ele><time>2026-04-28T09:27:25.858Z</time></trkpt><trkpt lat="39.370836913484496" lon="9.1443494305514"><ele>137.0</ele><time>2026-04-28T09:27:26.858Z</time></trkpt><trkpt lat="39.370831024121344" lon="9.144490395983745"><ele>137.75</ele><time>2026-04-28T09:27:27.858Z</time></trkpt><trkpt lat="39.37084232007421" lon="9.14462591545663"><ele>138.5</ele><time>2026-04-28T09:27:28.858Z</time></trkpt><trkpt lat="39.3708777698733" lon="9.144755336653366"><ele>139.25</ele><time>2026-04-28T09:27:29.858Z</time></trkpt><trkpt lat="39.370921328313166" lon="9.144898947547443"><ele>140.0</ele><time>2026-04-28T09:27:30.858Z</time></trkpt><trkpt lat="39.370983749144095" lon="9.145063763986089"><ele>141.0</ele><time>2026-04-28T09:27:31.858Z</time></trkpt><trkpt lat="39.37105678509959" lon="9.145250553622743"><ele>142.0</ele><time>2026-04-28T09:27:32.858Z</time></trkpt><trkpt lat="39.37112754680226" lon="9.14543584288637"><ele>143.0</ele><time>2026-04-28T09:27:33.858Z</time></trkpt><trkpt lat="39.37119275797753" lon="9.145607416847273"><ele>143.25</ele><time>2026-04-28T09:27:34.858Z</time></trkpt><trkpt lat="39.37125508785932" lon="9.145791242698087"><ele>143.5</ele><time>2026-04-28T09:27:35.857Z</time></trkpt><trkpt lat="39.37131656966232" lon="9.14596677543499"><ele>143.75</ele><time>2026-04-28T09:27:36.857Z</time></trkpt><trkpt lat="39.37137853910611" lon="9.14613349870791"><ele>144.0</ele><time>2026-04-28T09:27:37.857Z</time></trkpt><trkpt lat="39.37143468719437" lon="9.1463134587356"><ele>144.66666666666666</ele><time>2026-04-28T09:27:38.857Z</time></trkpt><trkpt lat="39.37150458578986" lon="9.146491929776088"><ele>145.33333333333331</ele><time>2026-04-28T09:27:39.857Z</time></trkpt><trkpt lat="39.371568858028404" lon="9.146674086480079"><ele>146.0</ele><time>2026-04-28T09:27:40.857Z</time></trkpt><trkpt lat="39.37163049234856" lon="9.146878604891036"><ele>146.0</ele><time>2026-04-28T09:27:41.856Z</time></trkpt><trkpt lat="39.371693490906466" lon="9.14706965860692"><ele>146.0</ele><time>2026-04-28T09:27:42.857Z</time></trkpt><trkpt lat="39.37176328097254" lon="9.14726122137796"><ele>146.0</ele><time>2026-04-28T09:27:43.857Z</time></trkpt><trkpt lat="39.37183993822836" lon="9.14745878201155"><ele>146.0</ele><time>2026-04-28T09:27:44.857Z</time></trkpt><trkpt lat="39.37191075223311" lon="9.147659559488037"><ele>146.0</ele><time>2026-04-28T09:27:45.857Z</time></trkpt><trkpt lat="39.37197742902804" lon="9.147860274135855"><ele>146.0</ele><time>2026-04-28T09:27:46.857Z</time></trkpt><trkpt lat="39.3720415240273" lon="9.148068344860661"><ele>146.33333333333331</ele><time>2026-04-28T09:27:47.856Z</time></trkpt><trkpt lat="39.372090263233595" lon="9.148274415209452"><ele>146.66666666666666</ele><time>2026-04-28T09:27:48.856Z</time></trkpt><trkpt lat="39.37213135776013" lon="9.148486615994258"><ele>147.0</ele><time>2026-04-28T09:27:49.856Z</time></trkpt><trkpt lat="39.372152487368574" lon="9.148698229713071"><ele>147.66666666666666</ele><time>2026-04-28T09:27:50.856Z</time></trkpt><trkpt lat="39.37220412414607" lon="9.148910674374585"><ele>148.33333333333331</ele><time>2026-04-28T09:27:51.856Z</time></trkpt><trkpt lat="39.372234733398834" lon="9.149123025958575"><ele>149.0</ele><time>2026-04-28T09:27:52.856Z</time></trkpt><trkpt lat="39.37227086459781" lon="9.149319339012967"><ele>150.0</ele><time>2026-04-28T09:27:53.856Z</time></trkpt><trkpt lat="39.372307632001956" lon="9.149511496329884"><ele>151.0</ele><time>2026-04-28T09:27:54.857Z</time></trkpt><trkpt lat="39.372338720802865" lon="9.149705426799724"><ele>152.0</ele><time>2026-04-28T09:27:55.857Z</time></trkpt><trkpt lat="39.372379502885686" lon="9.149902606091093"><ele>152.0</ele><time>2026-04-28T09:27:56.857Z</time></trkpt><trkpt lat="39.372416461353396" lon="9.150094023757388"><ele>152.0</ele><time>2026-04-28T09:27:57.857Z</time></trkpt><trkpt lat="39.372459619156075" lon="9.15027444932561"><ele>152.0</ele><time>2026-04-28T09:27:58.857Z</time></trkpt><trkpt lat="39.37248724619741" lon="9.150454561784416"><ele>152.0</ele><time>2026-04-28T09:27:59.857Z</time></trkpt><trkpt lat="39.37252441627352" lon="9.150616384833702"><ele>151.5</ele><time>2026-04-28T09:28:00.857Z</time></trkpt><trkpt lat="39.37254485403507" lon="9.15078243004877"><ele>151.0</ele><time>2026-04-28T09:28:01.857Z</time></trkpt><trkpt lat="39.372551765283795" lon="9.15096807820786"><ele>150.5</ele><time>2026-04-28T09:28:02.857Z</time></trkpt><trkpt lat="39.3725469640905" lon="9.151148250287422"><ele>150.0</ele><time>2026-04-28T09:28:03.857Z</time></trkpt><trkpt lat="39.37255077891224" lon="9.151314042417413"><ele>150.0</ele><time>2026-04-28T09:28:04.857Z</time></trkpt><trkpt lat="39.37256486656689" lon="9.151471291486448"><ele>150.0</ele><time>2026-04-28T09:28:05.857Z</time></trkpt><trkpt lat="39.372592894556504" lon="9.151616818869714"><ele>150.0</ele><time>2026-04-28T09:28:06.857Z</time></trkpt><trkpt lat="39.37263816652577" lon="9.15175268107237"><ele>150.0</ele><time>2026-04-28T09:28:07.857Z</time></trkpt><trkpt lat="39.37268221706029" lon="9.151862485944383"><ele>150.0</ele><time>2026-04-28T09:28:08.857Z</time></trkpt><trkpt lat="39.372743784023335" lon="9.151938503618513"><ele>150.0</ele><time>2026-04-28T09:28:09.857Z</time></trkpt><trkpt lat="39.372807730065446" lon="9.151990137561764"><ele>150.0</ele><time>2026-04-28T09:28:10.857Z</time></trkpt><trkpt lat="39.37288138964639" lon="9.15202904644126"><ele>150.0</ele><time>2026-04-28T09:28:11.857Z</time></trkpt><trkpt lat="39.37297207098267" lon="9.152018467502526"><ele>150.0</ele><time>2026-04-28T09:28:12.857Z</time></trkpt><trkpt lat="39.37306413530343" lon="9.151948465896474"><ele>150.0</ele><time>2026-04-28T09:28:13.857Z</time></trkpt><trkpt lat="39.37314289035257" lon="9.151893763951726"><ele>150.0</ele><time>2026-04-28T09:28:14.857Z</time></trkpt><trkpt lat="39.37323168779611" lon="9.151815538357644"><ele>150.5</ele><time>2026-04-28T09:28:15.857Z</time></trkpt><trkpt lat="39.373330224252626" lon="9.151733512504414"><ele>151.0</ele><time>2026-04-28T09:28:16.857Z</time></trkpt><trkpt lat="39.37343598785094" lon="9.151662761529956"><ele>151.5</ele><time>2026-04-28T09:28:17.857Z</time></trkpt><trkpt lat="39.373537622965735" lon="9.151589552584653"><ele>152.0</ele><time>2026-04-28T09:28:18.857Z</time></trkpt><trkpt lat="39.37364225857104" lon="9.151541228232023"><ele>152.16666666666666</ele><time>2026-04-28T09:28:19.857Z</time></trkpt><trkpt lat="39.37373252243338" lon="9.151518119960421"><ele>152.33333333333331</ele><time>2026-04-28T09:28:20.857Z</time></trkpt><trkpt lat="39.373800929086634" lon="9.151520335719963"><ele>152.5</ele><time>2026-04-28T09:28:21.857Z</time></trkpt><trkpt lat="39.373864990682826" lon="9.151567149208795"><ele>152.66666666666666</ele><time>2026-04-28T09:28:22.857Z</time></trkpt><trkpt lat="39.373934845992174" lon="9.15162791237265"><ele>152.83333333333334</ele><time>2026-04-28T09:28:23.857Z</time></trkpt><trkpt lat="39.37400266781663" lon="9.15172626653844"><ele>153.0</ele><time>2026-04-28T09:28:24.857Z</time></trkpt><trkpt lat="39.374048676786884" lon="9.151849772814266"><ele>153.25</ele><time>2026-04-28T09:28:25.857Z</time></trkpt><trkpt lat="39.37413262440152" lon="9.151978982297202"><ele>153.5</ele><time>2026-04-28T09:28:26.857Z</time></trkpt><trkpt lat="39.374202697975825" lon="9.152122720840302"><ele>153.75</ele><time>2026-04-28T09:28:27.857Z</time></trkpt><trkpt lat="39.37428748986382" lon="9.15226665137006"><ele>154.0</ele><time>2026-04-28T09:28:28.857Z</time></trkpt><trkpt lat="39.374387946238926" lon="9.152409231768734"><ele>154.25</ele><time>2026-04-28T09:28:29.857Z</time></trkpt><trkpt lat="39.374489738207636" lon="9.152551288265053"><ele>154.5</ele><time>2026-04-28T09:28:30.857Z</time></trkpt><trkpt lat="39.37458331725825" lon="9.152691927423188"><ele>154.75</ele><time>2026-04-28T09:28:31.857Z</time></trkpt><trkpt lat="39.37466486789034" lon="9.152837710754163"><ele>155.0</ele><time>2026-04-28T09:28:32.857Z</time></trkpt><trkpt lat="39.37473930682678" lon="9.152987220707898"><ele>155.5</ele><time>2026-04-28T09:28:33.857Z</time></trkpt><trkpt lat="39.37480777210234" lon="9.153104714194244"><ele>156.0</ele><time>2026-04-28T09:28:34.857Z</time></trkpt><trkpt lat="39.37484854678027" lon="9.15317363672259"><ele>156.5</ele><time>2026-04-28T09:28:35.857Z</time></trkpt><trkpt lat="39.37490410528635" lon="9.153227667180843"><ele>157.0</ele><time>2026-04-28T09:28:36.857Z</time></trkpt><trkpt lat="39.374977421628266" lon="9.153269677894437"><ele>157.5</ele><time>2026-04-28T09:28:37.857Z</time></trkpt><trkpt lat="39.375078962275815" lon="9.153294892719979"><ele>158.0</ele><time>2026-04-28T09:28:38.857Z</time></trkpt><trkpt lat="39.37519352423237" lon="9.153307051578944"><ele>158.0</ele><time>2026-04-28T09:28:39.857Z</time></trkpt><trkpt lat="39.375312558983914" lon="9.15332049208333"><ele>158.0</ele><time>2026-04-28T09:28:40.857Z</time></trkpt><trkpt lat="39.37543764116553" lon="9.153338002584753"><ele>158.0</ele><time>2026-04-28T09:28:41.857Z</time></trkpt><trkpt lat="39.375564765237996" lon="9.153360555820377"><ele>158.0</ele><time>2026-04-28T09:28:42.857Z</time></trkpt><trkpt lat="39.37569469868274" lon="9.153382014795929"><ele>158.0</ele><time>2026-04-28T09:28:43.857Z</time></trkpt><trkpt lat="39.37582152407712" lon="9.153395882492186"><ele>158.0</ele><time>2026-04-28T09:28:44.857Z</time></trkpt><trkpt lat="39.375941380185694" lon="9.153403941674492"><ele>158.0</ele><time>2026-04-28T09:28:45.857Z</time></trkpt><trkpt lat="39.37604329340839" lon="9.153393190573038"><ele>158.0</ele><time>2026-04-28T09:28:46.857Z</time></trkpt><trkpt lat="39.3761393746853" lon="9.153371913201592"><ele>158.0</ele><time>2026-04-28T09:28:47.857Z</time></trkpt><trkpt lat="39.37623522816851" lon="9.15330570441526"><ele>158.0</ele><time>2026-04-28T09:28:48.857Z</time></trkpt><trkpt lat="39.37631041579345" lon="9.153204890775157"><ele>158.0</ele><time>2026-04-28T09:28:49.857Z</time></trkpt><trkpt lat="39.376387961027426" lon="9.153083227413058"><ele>158.0</ele><time>2026-04-28T09:28:50.857Z</time></trkpt><trkpt lat="39.37645928545005" lon="9.152940239103724"><ele>158.0</ele><time>2026-04-28T09:28:51.857Z</time></trkpt><trkpt lat="39.376523762719884" lon="9.15278424147837"><ele>158.0</ele><time>2026-04-28T09:28:52.857Z</time></trkpt><trkpt lat="39.37658801135049" lon="9.152620264251963"><ele>158.0</ele><time>2026-04-28T09:28:53.857Z</time></trkpt><trkpt lat="39.376669695147385" lon="9.152476857915346"><ele>158.0</ele><time>2026-04-28T09:28:54.857Z</time></trkpt><trkpt lat="39.37673061672379" lon="9.152348921443311"><ele>158.0</ele><time>2026-04-28T09:28:55.857Z</time></trkpt><trkpt lat="39.376782191891245" lon="9.152244688995948"><ele>158.0</ele><time>2026-04-28T09:28:56.857Z</time></trkpt><trkpt lat="39.37682238337747" lon="9.15217335760002"><ele>158.0</ele><time>2026-04-28T09:28:57.857Z</time></trkpt><trkpt lat="39.37689316224924" lon="9.152134140228378"><ele>158.0</ele><time>2026-04-28T09:28:59.857Z</time></trkpt><trkpt lat="39.376939939846615" lon="9.152238920213547"><ele>158.0</ele><time>2026-04-28T09:29:02.857Z</time></trkpt><trkpt lat="39.376900250315046" lon="9.152317895390594"><ele>158.0</ele><time>2026-04-28T09:29:03.857Z</time></trkpt><trkpt lat="39.37688733242447" lon="9.152415378358507"><ele>158.0</ele><time>2026-04-28T09:29:04.857Z</time></trkpt><trkpt lat="39.37687630951107" lon="9.152533920861034"><ele>158.4</ele><time>2026-04-28T09:29:05.857Z</time></trkpt><trkpt lat="39.376863177329234" lon="9.152670539274169"><ele>158.8</ele><time>2026-04-28T09:29:06.857Z</time></trkpt><trkpt lat="39.37686414353986" lon="9.152813089829442"><ele>159.2</ele><time>2026-04-28T09:29:07.857Z</time></trkpt><trkpt lat="39.37684125332337" lon="9.152951127138728"><ele>159.6</ele><time>2026-04-28T09:29:08.857Z</time></trkpt><trkpt lat="39.37682601498863" lon="9.153081872486869"><ele>160.0</ele><time>2026-04-28T09:29:09.857Z</time></trkpt><trkpt lat="39.37681755412607" lon="9.153202926614226"><ele>160.0</ele><time>2026-04-28T09:29:10.857Z</time></trkpt><trkpt lat="39.37681319182074" lon="9.153320097654474"><ele>160.0</ele><time>2026-04-28T09:29:11.857Z</time></trkpt><trkpt lat="39.37681156724076" lon="9.153427898132204"><ele>160.0</ele><time>2026-04-28T09:29:12.857Z</time></trkpt><trkpt lat="39.376802279790624" lon="9.153537471736408"><ele>160.0</ele><time>2026-04-28T09:29:13.857Z</time></trkpt><trkpt lat="39.37679212807127" lon="9.153651116149375"><ele>160.0</ele><time>2026-04-28T09:29:14.857Z</time></trkpt><trkpt lat="39.37678240287971" lon="9.153768478793246"><ele>160.0</ele><time>2026-04-28T09:29:15.857Z</time></trkpt><trkpt lat="39.376745337925605" lon="9.153902638543402"><ele>160.4</ele><time>2026-04-28T09:29:16.857Z</time></trkpt><trkpt lat="39.37672976578722" lon="9.154043159276595"><ele>160.8</ele><time>2026-04-28T09:29:17.857Z</time></trkpt><trkpt lat="39.376731592211044" lon="9.154163428256705"><ele>161.2</ele><time>2026-04-28T09:29:18.857Z</time></trkpt><trkpt lat="39.37671723779279" lon="9.15429756456697"><ele>161.6</ele><time>2026-04-28T09:29:19.857Z</time></trkpt><trkpt lat="39.376707037201044" lon="9.154417551755488"><ele>162.0</ele><time>2026-04-28T09:29:20.857Z</time></trkpt><trkpt lat="39.37670726310198" lon="9.154548622937167"><ele>162.0</ele><time>2026-04-28T09:29:21.857Z</time></trkpt><trkpt lat="39.376674599522026" lon="9.154677106939381"><ele>162.0</ele><time>2026-04-28T09:29:22.857Z</time></trkpt><trkpt lat="39.37664144777623" lon="9.154775157630674"><ele>162.0</ele><time>2026-04-28T09:29:23.857Z</time></trkpt><trkpt lat="39.376590062321476" lon="9.154830693777683"><ele>162.0</ele><time>2026-04-28T09:29:24.857Z</time></trkpt><trkpt lat="39.37652055581307" lon="9.154889059105443"><ele>162.0</ele><time>2026-04-28T09:29:26.857Z</time></trkpt><trkpt lat="39.37651820052226" lon="9.155090445188772"><ele>162.5</ele><time>2026-04-28T09:29:29.858Z</time></trkpt><trkpt lat="39.37655377704423" lon="9.155172266125941"><ele>163.0</ele><time>2026-04-28T09:29:30.858Z</time></trkpt><trkpt lat="39.37659383608576" lon="9.155264396097326"><ele>163.5</ele><time>2026-04-28T09:29:31.858Z</time></trkpt><trkpt lat="39.37664163692699" lon="9.155332758468823"><ele>164.0</ele><time>2026-04-28T09:29:32.858Z</time></trkpt><trkpt lat="39.37668337880601" lon="9.155439230965392"><ele>164.5</ele><time>2026-04-28T09:29:34.858Z</time></trkpt><trkpt lat="39.37658755480787" lon="9.155542230015934"><ele>165.0</ele><time>2026-04-28T09:29:38.858Z</time></trkpt><trkpt lat="39.37653016657323" lon="9.155575891975307"><ele>165.0</ele><time>2026-04-28T09:29:39.858Z</time></trkpt><trkpt lat="39.37647534493229" lon="9.155628712618215"><ele>165.0</ele><time>2026-04-28T09:29:40.858Z</time></trkpt><trkpt lat="39.37640635230713" lon="9.155682485981943"><ele>165.0</ele><time>2026-04-28T09:29:41.856Z</time></trkpt><trkpt lat="39.37633138711643" lon="9.155717347634601"><ele>165.0</ele><time>2026-04-28T09:29:42.857Z</time></trkpt><trkpt lat="39.37626026623382" lon="9.155764329849795"><ele>165.0</ele><time>2026-04-28T09:29:43.857Z</time></trkpt><trkpt lat="39.37619246301918" lon="9.155809119558008"><ele>165.0</ele><time>2026-04-28T09:29:44.857Z</time></trkpt><trkpt lat="39.37613277492953" lon="9.15584907748766"><ele>165.6</ele><time>2026-04-28T09:29:45.856Z</time></trkpt><trkpt lat="39.37606771370061" lon="9.155892336675727"><ele>166.2</ele><time>2026-04-28T09:29:46.856Z</time></trkpt><trkpt lat="39.37597457926323" lon="9.155954260561565"><ele>166.8</ele><time>2026-04-28T09:29:48.856Z</time></trkpt><trkpt lat="39.37589446963349" lon="9.15599249271681"><ele>167.4</ele><time>2026-04-28T09:29:50.857Z</time></trkpt><trkpt lat="39.37581260139537" lon="9.156014921097029"><ele>168.0</ele><time>2026-04-28T09:29:53.857Z</time></trkpt><trkpt lat="39.375712150065446" lon="9.156051005526821"><ele>168.0</ele><time>2026-04-28T09:29:54.857Z</time></trkpt><trkpt lat="39.37560091925703" lon="9.156077794587704"><ele>168.0</ele><time>2026-04-28T09:29:55.857Z</time></trkpt><trkpt lat="39.37546857903443" lon="9.156122288657675"><ele>168.0</ele><time>2026-04-28T09:29:56.857Z</time></trkpt><trkpt lat="39.375365397184694" lon="9.156155527045513"><ele>168.0</ele><time>2026-04-28T09:29:57.857Z</time></trkpt><trkpt lat="39.375265014104464" lon="9.156187863879103"><ele>167.5</ele><time>2026-04-28T09:29:58.857Z</time></trkpt><trkpt lat="39.37514920983697" lon="9.156225168323639"><ele>167.0</ele><time>2026-04-28T09:29:59.857Z</time></trkpt><trkpt lat="39.37497592641612" lon="9.156280882468522"><ele>166.5</ele><time>2026-04-28T09:30:00.857Z</time></trkpt><trkpt lat="39.37487232412215" lon="9.156311272164368"><ele>166.0</ele><time>2026-04-28T09:30:01.857Z</time></trkpt><trkpt lat="39.37480027978408" lon="9.15632902421325"><ele>166.0</ele><time>2026-04-28T09:30:02.857Z</time></trkpt><trkpt lat="39.37472077062437" lon="9.156353034558006"><ele>166.0</ele><time>2026-04-28T09:30:04.857Z</time></trkpt><trkpt lat="39.37461915658617" lon="9.156550173605543"><ele>166.0</ele><time>2026-04-28T09:30:07.857Z</time></trkpt><trkpt lat="39.37464642769778" lon="9.15667137154746"><ele>166.0</ele><time>2026-04-28T09:30:09.857Z</time></trkpt><trkpt lat="39.37467830990585" lon="9.156748929108648"><ele>166.0</ele><time>2026-04-28T09:30:10.857Z</time></trkpt><trkpt lat="39.37471483800319" lon="9.15683680514821"><ele>167.0</ele><time>2026-04-28T09:30:11.857Z</time></trkpt><trkpt lat="39.37475740443839" lon="9.15693185156675"><ele>168.0</ele><time>2026-04-28T09:30:12.857Z</time></trkpt><trkpt lat="39.37479923789349" lon="9.15702590016297"><ele>169.0</ele><time>2026-04-28T09:30:13.857Z</time></trkpt><trkpt lat="39.37482583682803" lon="9.157129990456548"><ele>170.0</ele><time>2026-04-28T09:30:14.857Z</time></trkpt><trkpt lat="39.37486192297405" lon="9.157210751176383"><ele>171.0</ele><time>2026-04-28T09:30:15.857Z</time></trkpt><trkpt lat="39.37491249292377" lon="9.157297347513536"><ele>172.0</ele><time>2026-04-28T09:30:17.857Z</time></trkpt><trkpt lat="39.37494364092638" lon="9.15739983293216"><ele>173.0</ele><time>2026-04-28T09:30:27.857Z</time></trkpt><trkpt lat="39.37475740080315" lon="9.157710552966831"><ele>174.0</ele><time>2026-04-28T09:30:30.857Z</time></trkpt><trkpt lat="39.37474934291197" lon="9.157820815751888"><ele>175.0</ele><time>2026-04-28T09:30:31.857Z</time></trkpt><trkpt lat="39.37476067821816" lon="9.157909020309413"><ele>175.0</ele><time>2026-04-28T09:30:32.857Z</time></trkpt><trkpt lat="39.374787251301065" lon="9.15798571317058"><ele>175.0</ele><time>2026-04-28T09:30:33.857Z</time></trkpt><trkpt lat="39.374824733686" lon="9.158051195514638"><ele>175.0</ele><time>2026-04-28T09:30:34.857Z</time></trkpt><trkpt lat="39.37481163924539" lon="9.15813236524007"><ele>175.0</ele><time>2026-04-28T09:30:36.857Z</time></trkpt><trkpt lat="39.37472071931682" lon="9.158130102780115"><ele>175.0</ele><time>2026-04-28T09:30:38.857Z</time></trkpt><trkpt lat="39.37465342110182" lon="9.158123112010903"><ele>175.0</ele><time>2026-04-28T09:30:39.857Z</time></trkpt><trkpt lat="39.374567918647855" lon="9.158147357304424"><ele>175.0</ele><time>2026-04-28T09:30:40.857Z</time></trkpt><trkpt lat="39.37448714419036" lon="9.158173705312304"><ele>174.5</ele><time>2026-04-28T09:30:41.857Z</time></trkpt><trkpt lat="39.374408439669665" lon="9.158191907846524"><ele>174.0</ele><time>2026-04-28T09:30:42.857Z</time></trkpt><trkpt lat="39.3742928401931" lon="9.15818895824849"><ele>173.5</ele><time>2026-04-28T09:30:44.857Z</time></trkpt><trkpt lat="39.37421538697168" lon="9.158199285952604"><ele>173.0</ele><time>2026-04-28T09:30:46.857Z</time></trkpt><trkpt lat="39.374150853031345" lon="9.158282797669736"><ele>172.5</ele><time>2026-04-28T09:30:48.857Z</time></trkpt><trkpt lat="39.37411406853508" lon="9.158374531734204"><ele>172.0</ele><time>2026-04-28T09:30:50.857Z</time></trkpt><trkpt lat="39.37410509102372" lon="9.158505741731156"><ele>171.83333333333334</ele><time>2026-04-28T09:30:53.857Z</time></trkpt><trkpt lat="39.37412227230378" lon="9.158605741305081"><ele>171.66666666666669</ele><time>2026-04-28T09:30:54.857Z</time></trkpt><trkpt lat="39.37416364093302" lon="9.158698483528951"><ele>171.5</ele><time>2026-04-28T09:30:55.857Z</time></trkpt><trkpt lat="39.37420665869274" lon="9.15878650904089"><ele>171.33333333333334</ele><time>2026-04-28T09:30:56.857Z</time></trkpt><trkpt lat="39.374242167485015" lon="9.158868208700504"><ele>171.16666666666666</ele><time>2026-04-28T09:30:57.857Z</time></trkpt><trkpt lat="39.374333221962914" lon="9.158982992446084"><ele>171.0</ele><time>2026-04-28T09:30:59.857Z</time></trkpt><trkpt lat="39.374396162926935" lon="9.15903159967049"><ele>170.83333333333334</ele><time>2026-04-28T09:31:00.857Z</time></trkpt><trkpt lat="39.37446118289295" lon="9.159073135638101"><ele>170.66666666666666</ele><time>2026-04-28T09:31:01.857Z</time></trkpt><trkpt lat="39.374526722999306" lon="9.159111754396795"><ele>170.5</ele><time>2026-04-28T09:31:02.857Z</time></trkpt><trkpt lat="39.37462683178525" lon="9.159215867054188"><ele>170.33333333333331</ele><time>2026-04-28T09:31:04.858Z</time></trkpt><trkpt lat="39.374644495413314" lon="9.159303160415345"><ele>170.16666666666666</ele><time>2026-04-28T09:31:05.858Z</time></trkpt><trkpt lat="39.3746754856499" lon="9.159403601816306"><ele>170.0</ele><time>2026-04-28T09:31:06.858Z</time></trkpt><trkpt lat="39.37471639401027" lon="9.15950924059427"><ele>171.0</ele><time>2026-04-28T09:31:07.858Z</time></trkpt><trkpt lat="39.37475746261393" lon="9.159618305770122"><ele>172.0</ele><time>2026-04-28T09:31:08.858Z</time></trkpt><trkpt lat="39.37480752079043" lon="9.159723010852428"><ele>173.0</ele><time>2026-04-28T09:31:09.858Z</time></trkpt><trkpt lat="39.374854060620066" lon="9.159837008103567"><ele>174.0</ele><time>2026-04-28T09:31:10.858Z</time></trkpt><trkpt lat="39.3749025161668" lon="9.159957869312104"><ele>175.0</ele><time>2026-04-28T09:31:11.858Z</time></trkpt><trkpt lat="39.37495588130932" lon="9.160076816691438"><ele>175.0</ele><time>2026-04-28T09:31:12.858Z</time></trkpt><trkpt lat="39.375009458642204" lon="9.160198533533071"><ele>175.0</ele><time>2026-04-28T09:31:13.858Z</time></trkpt><trkpt lat="39.37506425411376" lon="9.160318315887286"><ele>175.0</ele><time>2026-04-28T09:31:14.858Z</time></trkpt><trkpt lat="39.3751202763151" lon="9.160435843055337"><ele>175.0</ele><time>2026-04-28T09:31:15.858Z</time></trkpt><trkpt lat="39.375175904961424" lon="9.160540432623177"><ele>175.0</ele><time>2026-04-28T09:31:16.858Z</time></trkpt><trkpt lat="39.37522286117603" lon="9.160638918732584"><ele>174.8</ele><time>2026-04-28T09:31:17.858Z</time></trkpt><trkpt lat="39.37528500740315" lon="9.160714475981523"><ele>174.6</ele><time>2026-04-28T09:31:18.858Z</time></trkpt><trkpt lat="39.375329039652584" lon="9.160786294320275"><ele>174.39999999999998</ele><time>2026-04-28T09:31:19.858Z</time></trkpt><trkpt lat="39.37538607751169" lon="9.160873889954171"><ele>174.2</ele><time>2026-04-28T09:31:21.858Z</time></trkpt><trkpt lat="39.37545572453771" lon="9.161020429377938"><ele>174.0</ele><time>2026-04-28T09:31:23.858Z</time></trkpt><trkpt lat="39.37550388087219" lon="9.161128150233365"><ele>174.2</ele><time>2026-04-28T09:31:24.858Z</time></trkpt><trkpt lat="39.375564788427724" lon="9.161236682880435"><ele>174.39999999999998</ele><time>2026-04-28T09:31:25.858Z</time></trkpt><trkpt lat="39.37561065724356" lon="9.161363799130205"><ele>174.6</ele><time>2026-04-28T09:31:26.858Z</time></trkpt><trkpt lat="39.37565187007955" lon="9.161486010716223"><ele>174.8</ele><time>2026-04-28T09:31:27.858Z</time></trkpt><trkpt lat="39.375706734228125" lon="9.161598485721564"><ele>175.0</ele><time>2026-04-28T09:31:28.858Z</time></trkpt><trkpt lat="39.37574246627755" lon="9.161734558248904"><ele>175.2</ele><time>2026-04-28T09:31:29.858Z</time></trkpt><trkpt lat="39.37577781653564" lon="9.161870611090292"><ele>175.4</ele><time>2026-04-28T09:31:30.858Z</time></trkpt><trkpt lat="39.375807809943694" lon="9.162012719606166"><ele>175.60000000000002</ele><time>2026-04-28T09:31:31.858Z</time></trkpt><trkpt lat="39.3758402822285" lon="9.16214193507646"><ele>175.8</ele><time>2026-04-28T09:31:32.858Z</time></trkpt><trkpt lat="39.375870809777346" lon="9.162264562481218"><ele>176.0</ele><time>2026-04-28T09:31:33.858Z</time></trkpt><trkpt lat="39.37590777975378" lon="9.162372160432577"><ele>176.66666666666666</ele><time>2026-04-28T09:31:34.858Z</time></trkpt><trkpt lat="39.37594375141032" lon="9.162458268317348"><ele>177.33333333333331</ele><time>2026-04-28T09:31:35.858Z</time></trkpt><trkpt lat="39.37600255355088" lon="9.16255570811223"><ele>178.0</ele><time>2026-04-28T09:31:37.858Z</time></trkpt><trkpt lat="39.37604081162219" lon="9.162628704987767"><ele>178.66666666666666</ele><time>2026-04-28T09:31:41.858Z</time></trkpt><trkpt lat="39.37610632012739" lon="9.162696976957756"><ele>179.33333333333334</ele><time>2026-04-28T09:31:43.858Z</time></trkpt><trkpt lat="39.37615809506543" lon="9.162761701394002"><ele>180.0</ele><time>2026-04-28T09:31:44.858Z</time></trkpt><trkpt lat="39.376220847708325" lon="9.162871969016592"><ele>180.0</ele><time>2026-04-28T09:31:46.858Z</time></trkpt><trkpt lat="39.37616498606841" lon="9.162963986758111"><ele>180.0</ele><time>2026-04-28T09:31:58.856Z</time></trkpt><trkpt lat="39.37607697563518" lon="9.16300039630779"><ele>180.0</ele><time>2026-04-28T09:32:01.856Z</time></trkpt><trkpt lat="39.37600748090546" lon="9.163045242272057"><ele>180.0</ele><time>2026-04-28T09:32:04.856Z</time></trkpt><trkpt lat="39.37594138031257" lon="9.1631116795292"><ele>180.0</ele><time>2026-04-28T09:32:08.856Z</time></trkpt><trkpt lat="39.37585900939871" lon="9.1631715057838"><ele>180.0</ele><time>2026-04-28T09:32:11.856Z</time></trkpt><trkpt lat="39.37577174239997" lon="9.163229401450923"><ele>180.0</ele><time>2026-04-28T09:32:13.856Z</time></trkpt><trkpt lat="39.37569812754109" lon="9.163292039345833"><ele>180.0</ele><time>2026-04-28T09:32:15.856Z</time></trkpt><trkpt lat="39.3756163356788" lon="9.163343703678851"><ele>180.0</ele><time>2026-04-28T09:32:17.856Z</time></trkpt><trkpt lat="39.375554017108236" lon="9.163381121271991"><ele>180.0</ele><time>2026-04-28T09:32:19.856Z</time></trkpt><trkpt lat="39.375475638871215" lon="9.16345070171722"><ele>180.0</ele><time>2026-04-28T09:32:22.856Z</time></trkpt><trkpt lat="39.37541673950841" lon="9.163481791865213"><ele>180.0</ele><time>2026-04-28T09:32:26.856Z</time></trkpt><trkpt lat="39.37535036197565" lon="9.163510735782559"><ele>180.0</ele><time>2026-04-28T09:32:43.856Z</time></trkpt><trkpt lat="39.37528829992642" lon="9.163554349050413"><ele>180.0</ele><time>2026-04-28T09:33:44.857Z</time></trkpt><trkpt lat="39.37529601120798" lon="9.163649973966685"><ele>180.0</ele><time>2026-04-28T09:33:46.857Z</time></trkpt><trkpt lat="39.37533345757534" lon="9.163777447306884"><ele>180.0</ele><time>2026-04-28T09:33:48.857Z</time></trkpt><trkpt lat="39.375362400803866" lon="9.163855139970002"><ele>180.0</ele><time>2026-04-28T09:33:49.857Z</time></trkpt><trkpt lat="39.37539555050782" lon="9.163938641831143"><ele>180.0</ele><time>2026-04-28T09:33:50.857Z</time></trkpt><trkpt lat="39.37543229591666" lon="9.164025939202158"><ele>180.33333333333334</ele><time>2026-04-28T09:33:51.857Z</time></trkpt><trkpt lat="39.37546665940095" lon="9.164115161009946"><ele>180.66666666666666</ele><time>2026-04-28T09:33:52.857Z</time></trkpt><trkpt lat="39.37550310739791" lon="9.164215132815592"><ele>181.0</ele><time>2026-04-28T09:33:53.856Z</time></trkpt><trkpt lat="39.37553897092754" lon="9.164311444278395"><ele>181.33333333333331</ele><time>2026-04-28T09:33:54.855Z</time></trkpt><trkpt lat="39.3755801443997" lon="9.164412551293967"><ele>181.66666666666666</ele><time>2026-04-28T09:33:55.855Z</time></trkpt><trkpt lat="39.375628590340675" lon="9.16452516718656"><ele>182.0</ele><time>2026-04-28T09:33:56.856Z</time></trkpt><trkpt lat="39.37567599514142" lon="9.164629012759786"><ele>182.16666666666666</ele><time>2026-04-28T09:33:57.858Z</time></trkpt><trkpt lat="39.37571991022268" lon="9.16472595022064"><ele>182.33333333333331</ele><time>2026-04-28T09:33:58.86Z</time></trkpt><trkpt lat="39.37575715107075" lon="9.164824472370722"><ele>182.5</ele><time>2026-04-28T09:33:59.863Z</time></trkpt><trkpt lat="39.375792881790446" lon="9.16489728263007"><ele>182.66666666666666</ele><time>2026-04-28T09:34:00.865Z</time></trkpt><trkpt lat="39.37583267710289" lon="9.164980760531302"><ele>182.83333333333334</ele><time>2026-04-28T09:34:01.867Z</time></trkpt><trkpt lat="39.375867477908436" lon="9.165073413019721"><ele>183.0</ele><time>2026-04-28T09:34:02.869Z</time></trkpt><trkpt lat="39.37589871643472" lon="9.165174704224889"><ele>183.8</ele><time>2026-04-28T09:34:03.87Z</time></trkpt><trkpt lat="39.375926698328996" lon="9.165288445815362"><ele>184.60000000000002</ele><time>2026-04-28T09:34:04.872Z</time></trkpt><trkpt lat="39.37595086085824" lon="9.165412293130341"><ele>185.39999999999998</ele><time>2026-04-28T09:34:05.874Z</time></trkpt><trkpt lat="39.37598973990365" lon="9.165528924260732"><ele>186.2</ele><time>2026-04-28T09:34:06.875Z</time></trkpt><trkpt lat="39.375977837459715" lon="9.165665466233351"><ele>187.0</ele><time>2026-04-28T09:34:07.877Z</time></trkpt><trkpt lat="39.37598043878411" lon="9.165800874884122"><ele>187.5</ele><time>2026-04-28T09:34:08.878Z</time></trkpt><trkpt lat="39.37597526136781" lon="9.16595016443025"><ele>188.0</ele><time>2026-04-28T09:34:09.879Z</time></trkpt><trkpt lat="39.37597466150124" lon="9.166100766470848"><ele>188.5</ele><time>2026-04-28T09:34:10.88Z</time></trkpt><trkpt lat="39.37597266145888" lon="9.16625879198455"><ele>189.0</ele><time>2026-04-28T09:34:11.881Z</time></trkpt><trkpt lat="39.375970055477865" lon="9.166419236657319"><ele>189.0</ele><time>2026-04-28T09:34:12.882Z</time></trkpt><trkpt lat="39.3759658255584" lon="9.16658030189768"><ele>189.0</ele><time>2026-04-28T09:34:13.883Z</time></trkpt><trkpt lat="39.37595565885615" lon="9.166746709747802"><ele>189.0</ele><time>2026-04-28T09:34:14.884Z</time></trkpt><trkpt lat="39.375945492863835" lon="9.166914510614077"><ele>189.0</ele><time>2026-04-28T09:34:15.885Z</time></trkpt><trkpt lat="39.37593821946487" lon="9.1670774593465"><ele>189.0</ele><time>2026-04-28T09:34:16.886Z</time></trkpt><trkpt lat="39.37593074882055" lon="9.167243603726824"><ele>189.0</ele><time>2026-04-28T09:34:17.887Z</time></trkpt><trkpt lat="39.37592283221023" lon="9.167409034838457"><ele>189.0</ele><time>2026-04-28T09:34:18.887Z</time></trkpt><trkpt lat="39.37592149648394" lon="9.167563215586904"><ele>189.0</ele><time>2026-04-28T09:34:19.888Z</time></trkpt><trkpt lat="39.375915016245834" lon="9.16773148914978"><ele>189.25</ele><time>2026-04-28T09:34:20.889Z</time></trkpt><trkpt lat="39.3759056498257" lon="9.167885518217183"><ele>189.5</ele><time>2026-04-28T09:34:21.889Z</time></trkpt><trkpt lat="39.37589490607013" lon="9.168037756811938"><ele>189.75</ele><time>2026-04-28T09:34:22.89Z</time></trkpt><trkpt lat="39.37588871857777" lon="9.16819339076386"><ele>190.0</ele><time>2026-04-28T09:34:23.89Z</time></trkpt><trkpt lat="39.375879024693184" lon="9.168347586727757"><ele>191.0</ele><time>2026-04-28T09:34:24.891Z</time></trkpt><trkpt lat="39.37586638629381" lon="9.168501328548745"><ele>192.0</ele><time>2026-04-28T09:34:25.891Z</time></trkpt><trkpt lat="39.37586140233674" lon="9.168656996482483"><ele>193.0</ele><time>2026-04-28T09:34:26.892Z</time></trkpt><trkpt lat="39.375852291725444" lon="9.168799853987746"><ele>194.0</ele><time>2026-04-28T09:34:27.892Z</time></trkpt><trkpt lat="39.3758421700442" lon="9.168939206032888"><ele>194.2</ele><time>2026-04-28T09:34:28.892Z</time></trkpt><trkpt lat="39.37583217073871" lon="9.1690689114541"><ele>194.39999999999998</ele><time>2026-04-28T09:34:29.893Z</time></trkpt><trkpt lat="39.37582509476724" lon="9.16920269168454"><ele>194.6</ele><time>2026-04-28T09:34:30.893Z</time></trkpt><trkpt lat="39.375813518652215" lon="9.169306516652577"><ele>194.8</ele><time>2026-04-28T09:34:31.893Z</time></trkpt><trkpt lat="39.37580057189794" lon="9.169452136218457"><ele>195.0</ele><time>2026-04-28T09:34:33.894Z</time></trkpt><trkpt lat="39.375781655039184" lon="9.169530917734814"><ele>195.0</ele><time>2026-04-28T09:34:34.894Z</time></trkpt><trkpt lat="39.37575984876814" lon="9.169647294516622"><ele>195.0</ele><time>2026-04-28T09:34:36.895Z</time></trkpt><trkpt lat="39.375604010917534" lon="9.169685548794739"><ele>195.0</ele><time>2026-04-28T09:34:37.895Z</time></trkpt><trkpt lat="39.375512143216056" lon="9.16974051121997"><ele>195.0</ele><time>2026-04-28T09:34:38.895Z</time></trkpt><trkpt lat="39.375416570956055" lon="9.169799688831299"><ele>195.2</ele><time>2026-04-28T09:34:39.895Z</time></trkpt><trkpt lat="39.37532695042788" lon="9.169859397834161"><ele>195.4</ele><time>2026-04-28T09:34:40.895Z</time></trkpt><trkpt lat="39.375246024077285" lon="9.1699124121464"><ele>195.60000000000002</ele><time>2026-04-28T09:34:41.896Z</time></trkpt><trkpt lat="39.375154671982685" lon="9.169969247414604"><ele>195.8</ele><time>2026-04-28T09:34:42.896Z</time></trkpt><trkpt lat="39.37506708019652" lon="9.170028544885236"><ele>196.0</ele><time>2026-04-28T09:34:43.896Z</time></trkpt><trkpt lat="39.37496112346073" lon="9.170095203288618"><ele>196.0</ele><time>2026-04-28T09:34:44.896Z</time></trkpt><trkpt lat="39.37484571175703" lon="9.170166442317026"><ele>196.0</ele><time>2026-04-28T09:34:45.896Z</time></trkpt><trkpt lat="39.37472271449539" lon="9.170241668110531"><ele>196.0</ele><time>2026-04-28T09:34:46.896Z</time></trkpt><trkpt lat="39.374600040416674" lon="9.170312798766343"><ele>196.0</ele><time>2026-04-28T09:34:47.896Z</time></trkpt><trkpt lat="39.37447720176205" lon="9.170381642983191"><ele>195.5</ele><time>2026-04-28T09:34:48.897Z</time></trkpt><trkpt lat="39.374347383570075" lon="9.170450713885279"><ele>195.0</ele><time>2026-04-28T09:34:49.897Z</time></trkpt><trkpt lat="39.37421031048573" lon="9.170515711882409"><ele>194.5</ele><time>2026-04-28T09:34:50.897Z</time></trkpt><trkpt lat="39.3740657397608" lon="9.170580011157416"><ele>194.0</ele><time>2026-04-28T09:34:51.897Z</time></trkpt><trkpt lat="39.373919508523024" lon="9.170641785539793"><ele>194.0</ele><time>2026-04-28T09:34:52.897Z</time></trkpt><trkpt lat="39.37377638634251" lon="9.170702794913865"><ele>194.0</ele><time>2026-04-28T09:34:53.897Z</time></trkpt><trkpt lat="39.37363237519278" lon="9.170761766684754"><ele>194.0</ele><time>2026-04-28T09:34:54.897Z</time></trkpt><trkpt lat="39.37349249892845" lon="9.170823672209874"><ele>194.0</ele><time>2026-04-28T09:34:55.897Z</time></trkpt><trkpt lat="39.37335504726286" lon="9.170888479821944"><ele>194.0</ele><time>2026-04-28T09:34:56.897Z</time></trkpt><trkpt lat="39.37321545281865" lon="9.170949916438254"><ele>194.0</ele><time>2026-04-28T09:34:57.897Z</time></trkpt><trkpt lat="39.37307956080414" lon="9.17101483589842"><ele>194.0</ele><time>2026-04-28T09:34:58.897Z</time></trkpt><trkpt lat="39.372956161304515" lon="9.171068611656727"><ele>193.79999999999998</ele><time>2026-04-28T09:34:59.898Z</time></trkpt><trkpt lat="39.37284867039304" lon="9.171116059219461"><ele>193.6</ele><time>2026-04-28T09:35:00.898Z</time></trkpt><trkpt lat="39.37275384671474" lon="9.171156179127216"><ele>193.4</ele><time>2026-04-28T09:35:01.898Z</time></trkpt><trkpt lat="39.37265890637453" lon="9.171198570963917"><ele>193.2</ele><time>2026-04-28T09:35:02.898Z</time></trkpt><trkpt lat="39.37255951007965" lon="9.171241590289299"><ele>193.0</ele><time>2026-04-28T09:35:03.898Z</time></trkpt><trkpt lat="39.37245952155266" lon="9.17128838857063"><ele>193.0</ele><time>2026-04-28T09:35:04.898Z</time></trkpt><trkpt lat="39.3723609759727" lon="9.171334107364826"><ele>193.0</ele><time>2026-04-28T09:35:05.898Z</time></trkpt><trkpt lat="39.372265002925545" lon="9.171380469051892"><ele>193.0</ele><time>2026-04-28T09:35:06.898Z</time></trkpt><trkpt lat="39.37216998562503" lon="9.171424635977939"><ele>193.0</ele><time>2026-04-28T09:35:07.898Z</time></trkpt><trkpt lat="39.3720740736633" lon="9.17146958132531"><ele>193.0</ele><time>2026-04-28T09:35:08.898Z</time></trkpt><trkpt lat="39.37197774669547" lon="9.171514033146074"><ele>193.4</ele><time>2026-04-28T09:35:09.898Z</time></trkpt><trkpt lat="39.371880299555194" lon="9.171560127049373"><ele>193.8</ele><time>2026-04-28T09:35:10.898Z</time></trkpt><trkpt lat="39.371788743304286" lon="9.171602550483101"><ele>194.2</ele><time>2026-04-28T09:35:11.898Z</time></trkpt><trkpt lat="39.371696678237626" lon="9.171641811972059"><ele>194.6</ele><time>2026-04-28T09:35:12.898Z</time></trkpt><trkpt lat="39.371603817411994" lon="9.171681613728836"><ele>195.0</ele><time>2026-04-28T09:35:13.898Z</time></trkpt><trkpt lat="39.37150854688991" lon="9.171726339634455"><ele>195.0</ele><time>2026-04-28T09:35:14.898Z</time></trkpt><trkpt lat="39.37141118811729" lon="9.171774391415214"><ele>195.0</ele><time>2026-04-28T09:35:15.898Z</time></trkpt><trkpt lat="39.37131001106498" lon="9.171820123748214"><ele>195.0</ele><time>2026-04-28T09:35:16.898Z</time></trkpt><trkpt lat="39.37120396285992" lon="9.17187058387073"><ele>195.0</ele><time>2026-04-28T09:35:17.898Z</time></trkpt><trkpt lat="39.371098575036335" lon="9.171921721565361"><ele>195.0</ele><time>2026-04-28T09:35:18.898Z</time></trkpt><trkpt lat="39.37099339962884" lon="9.171968939803179"><ele>195.2</ele><time>2026-04-28T09:35:19.898Z</time></trkpt><trkpt lat="39.3708894600601" lon="9.172013912235077"><ele>195.4</ele><time>2026-04-28T09:35:20.898Z</time></trkpt><trkpt lat="39.37079383420717" lon="9.172052497811764"><ele>195.60000000000002</ele><time>2026-04-28T09:35:21.899Z</time></trkpt><trkpt lat="39.37070028290146" lon="9.17209024947524"><ele>195.8</ele><time>2026-04-28T09:35:22.899Z</time></trkpt><trkpt lat="39.370602821943436" lon="9.172130791246481"><ele>196.0</ele><time>2026-04-28T09:35:23.899Z</time></trkpt><trkpt lat="39.37050256225643" lon="9.172168333617671"><ele>196.0</ele><time>2026-04-28T09:35:24.899Z</time></trkpt><trkpt lat="39.37040828737783" lon="9.172208236948586"><ele>196.0</ele><time>2026-04-28T09:35:25.899Z</time></trkpt><trkpt lat="39.37031924265929" lon="9.17225128555241"><ele>196.0</ele><time>2026-04-28T09:35:26.899Z</time></trkpt><trkpt lat="39.370224129923926" lon="9.17228786629789"><ele>196.0</ele><time>2026-04-28T09:35:27.899Z</time></trkpt><trkpt lat="39.370130898197125" lon="9.172326027317554"><ele>196.0</ele><time>2026-04-28T09:35:28.899Z</time></trkpt><trkpt lat="39.37004472461833" lon="9.172358387478187"><ele>195.99999999999997</ele><time>2026-04-28T09:35:29.899Z</time></trkpt><trkpt lat="39.36995730782908" lon="9.172393959030169"><ele>196.0</ele><time>2026-04-28T09:35:30.899Z</time></trkpt><trkpt lat="39.369874406506575" lon="9.172425610174496"><ele>196.0</ele><time>2026-04-28T09:35:31.899Z</time></trkpt><trkpt lat="39.36979824027616" lon="9.172459001654104"><ele>196.0</ele><time>2026-04-28T09:35:32.899Z</time></trkpt><trkpt lat="39.36972862270701" lon="9.172509410565544"><ele>195.99999999999997</ele><time>2026-04-28T09:35:33.899Z</time></trkpt><trkpt lat="39.369666436448625" lon="9.172573697395476"><ele>196.0</ele><time>2026-04-28T09:35:34.899Z</time></trkpt><trkpt lat="39.36961900708271" lon="9.172650598724113"><ele>195.57142857142858</ele><time>2026-04-28T09:35:35.899Z</time></trkpt><trkpt lat="39.36958176546633" lon="9.17273344205722"><ele>195.14285714285714</ele><time>2026-04-28T09:35:36.899Z</time></trkpt><trkpt lat="39.36954106580406" lon="9.172807298517268"><ele>194.71428571428572</ele><time>2026-04-28T09:35:37.899Z</time></trkpt><trkpt lat="39.369493063453355" lon="9.172888329727417"><ele>194.28571428571428</ele><time>2026-04-28T09:35:39.899Z</time></trkpt><trkpt lat="39.36945784464783" lon="9.172956746164315"><ele>193.85714285714286</ele><time>2026-04-28T09:35:48.899Z</time></trkpt><trkpt lat="39.36941616828449" lon="9.173040795022818"><ele>193.42857142857144</ele><time>2026-04-28T09:36:07.898Z</time></trkpt><trkpt lat="39.36937480481926" lon="9.173113812067474"><ele>193.0</ele><time>2026-04-28T09:36:10.898Z</time></trkpt><trkpt lat="39.36947790784139" lon="9.173185911478017"><ele>194.0</ele><time>2026-04-28T09:36:29.898Z</time></trkpt><trkpt lat="39.36957068944668" lon="9.1732252905804"><ele>195.0</ele><time>2026-04-28T09:36:31.898Z</time></trkpt><trkpt lat="39.36964016014458" lon="9.17325232632896"><ele>196.0</ele><time>2026-04-28T09:36:32.898Z</time></trkpt><trkpt lat="39.36971247921986" lon="9.173290818482954"><ele>197.0</ele><time>2026-04-28T09:36:33.898Z</time></trkpt><trkpt lat="39.369801291045185" lon="9.173335842126592"><ele>198.0</ele><time>2026-04-28T09:36:34.898Z</time></trkpt><trkpt lat="39.36990839806747" lon="9.173393575463253"><ele>198.25</ele><time>2026-04-28T09:36:35.898Z</time></trkpt><trkpt lat="39.370041614284" lon="9.17345199204725"><ele>198.5</ele><time>2026-04-28T09:36:36.898Z</time></trkpt><trkpt lat="39.370186180867535" lon="9.173519160537356"><ele>198.75</ele><time>2026-04-28T09:36:37.899Z</time></trkpt><trkpt lat="39.37031997061691" lon="9.173578628701451"><ele>199.0</ele><time>2026-04-28T09:36:38.899Z</time></trkpt><trkpt lat="39.370142331546056" lon="9.173542141231389"><ele>199.0</ele><time>2026-04-28T09:36:39.899Z</time></trkpt><trkpt lat="39.370233598901635" lon="9.173593422666874"><ele>199.0</ele><time>2026-04-28T09:36:40.899Z</time></trkpt><trkpt lat="39.37032436279574" lon="9.173645712262555"><ele>199.0</ele><time>2026-04-28T09:36:41.899Z</time></trkpt><trkpt lat="39.37041211295203" lon="9.173690103580196"><ele>199.0</ele><time>2026-04-28T09:36:42.899Z</time></trkpt><trkpt lat="39.37049675519141" lon="9.173738737772226"><ele>199.0</ele><time>2026-04-28T09:36:43.899Z</time></trkpt><trkpt lat="39.37058489328279" lon="9.173783513493635"><ele>199.39999999999998</ele><time>2026-04-28T09:36:44.899Z</time></trkpt><trkpt lat="39.37067221818666" lon="9.173833631550005"><ele>199.8</ele><time>2026-04-28T09:36:45.899Z</time></trkpt><trkpt lat="39.37076327127675" lon="9.173888444008789"><ele>200.2</ele><time>2026-04-28T09:36:46.899Z</time></trkpt><trkpt lat="39.370859447243454" lon="9.17393525035226"><ele>200.60000000000002</ele><time>2026-04-28T09:36:47.899Z</time></trkpt><trkpt lat="39.370951696050334" lon="9.173990735566266"><ele>201.0</ele><time>2026-04-28T09:36:48.899Z</time></trkpt><trkpt lat="39.37105552222326" lon="9.17404374252305"><ele>201.4</ele><time>2026-04-28T09:36:49.899Z</time></trkpt><trkpt lat="39.37115245501842" lon="9.17412156804647"><ele>201.8</ele><time>2026-04-28T09:36:50.899Z</time></trkpt><trkpt lat="39.3712561216724" lon="9.17415767646599"><ele>202.20000000000002</ele><time>2026-04-28T09:36:51.899Z</time></trkpt><trkpt lat="39.371352254363806" lon="9.174213094765955"><ele>202.60000000000002</ele><time>2026-04-28T09:36:52.899Z</time></trkpt><trkpt lat="39.371459120411636" lon="9.174267806023808"><ele>203.0</ele><time>2026-04-28T09:36:53.899Z</time></trkpt><trkpt lat="39.371560872186656" lon="9.174326101122"><ele>203.25</ele><time>2026-04-28T09:36:54.899Z</time></trkpt><trkpt lat="39.3716600867462" lon="9.174387257827858"><ele>203.5</ele><time>2026-04-28T09:36:55.899Z</time></trkpt><trkpt lat="39.37176194375526" lon="9.174467419483912"><ele>203.75</ele><time>2026-04-28T09:36:56.899Z</time></trkpt><trkpt lat="39.371870094339144" lon="9.174511348313588"><ele>204.0</ele><time>2026-04-28T09:36:57.899Z</time></trkpt><trkpt lat="39.37197527976222" lon="9.174573411334205"><ele>204.0</ele><time>2026-04-28T09:36:58.899Z</time></trkpt><trkpt lat="39.37208609753054" lon="9.174639333552467"><ele>204.0</ele><time>2026-04-28T09:36:59.899Z</time></trkpt><trkpt lat="39.37219860641672" lon="9.174699697983721"><ele>204.0</ele><time>2026-04-28T09:37:00.899Z</time></trkpt><trkpt lat="39.37230838279604" lon="9.174757540300051"><ele>204.0</ele><time>2026-04-28T09:37:01.899Z</time></trkpt><trkpt lat="39.37241677277661" lon="9.174838975851308"><ele>205.25</ele><time>2026-04-28T09:37:02.899Z</time></trkpt><trkpt lat="39.37251999555628" lon="9.174897900386975"><ele>206.5</ele><time>2026-04-28T09:37:03.899Z</time></trkpt><trkpt lat="39.372629425876454" lon="9.174940595090872"><ele>207.75</ele><time>2026-04-28T09:37:04.899Z</time></trkpt><trkpt lat="39.372742653025234" lon="9.17500830430475"><ele>209.0</ele><time>2026-04-28T09:37:05.899Z</time></trkpt><trkpt lat="39.37285999695558" lon="9.175076315974488"><ele>209.0</ele><time>2026-04-28T09:37:06.899Z</time></trkpt><trkpt lat="39.372978089826034" lon="9.175147951583433"><ele>209.0</ele><time>2026-04-28T09:37:07.899Z</time></trkpt><trkpt lat="39.373085332495904" lon="9.175224639659678"><ele>209.0</ele><time>2026-04-28T09:37:08.899Z</time></trkpt><trkpt lat="39.373198138548794" lon="9.175290851224727"><ele>209.0</ele><time>2026-04-28T09:37:09.899Z</time></trkpt><trkpt lat="39.373315211564574" lon="9.175336103603486"><ele>209.75</ele><time>2026-04-28T09:37:10.899Z</time></trkpt><trkpt lat="39.37341243282325" lon="9.175416626293716"><ele>210.5</ele><time>2026-04-28T09:37:11.899Z</time></trkpt><trkpt lat="39.37352080450919" lon="9.175459993758235"><ele>211.25</ele><time>2026-04-28T09:37:12.899Z</time></trkpt><trkpt lat="39.37362637739483" lon="9.175538569457474"><ele>212.0</ele><time>2026-04-28T09:37:13.899Z</time></trkpt><trkpt lat="39.37370711437156" lon="9.175624114825794"><ele>212.39999999999998</ele><time>2026-04-28T09:37:14.899Z</time></trkpt><trkpt lat="39.37377982976224" lon="9.175727205268652"><ele>212.79999999999998</ele><time>2026-04-28T09:37:15.899Z</time></trkpt><trkpt lat="39.37385606243461" lon="9.175833117929052"><ele>213.2</ele><time>2026-04-28T09:37:16.899Z</time></trkpt><trkpt lat="39.37393079133458" lon="9.175947262812937"><ele>213.6</ele><time>2026-04-28T09:37:17.899Z</time></trkpt><trkpt lat="39.37398325227182" lon="9.17604333541938"><ele>214.0</ele><time>2026-04-28T09:37:18.899Z</time></trkpt><trkpt lat="39.374045229462546" lon="9.176100010015656"><ele>215.0</ele><time>2026-04-28T09:37:19.899Z</time></trkpt><trkpt lat="39.374103362311565" lon="9.176154986597789"><ele>215.99999999999997</ele><time>2026-04-28T09:37:20.899Z</time></trkpt><trkpt lat="39.374216518074846" lon="9.17620388082167"><ele>216.99999999999997</ele><time>2026-04-28T09:37:22.899Z</time></trkpt><trkpt lat="39.37427045714102" lon="9.176274041357175"><ele>218.0</ele><time>2026-04-28T09:37:24.899Z</time></trkpt><trkpt lat="39.37423444472846" lon="9.176393245822513"><ele>219.0</ele><time>2026-04-28T09:37:26.899Z</time></trkpt><trkpt lat="39.37416190716581" lon="9.176542405414397"><ele>218.66666666666666</ele><time>2026-04-28T09:37:28.899Z</time></trkpt><trkpt lat="39.374129512415976" lon="9.17663968649019"><ele>218.33333333333331</ele><time>2026-04-28T09:37:29.899Z</time></trkpt><trkpt lat="39.374084514013056" lon="9.176720226249696"><ele>218.0</ele><time>2026-04-28T09:37:30.899Z</time></trkpt><trkpt lat="39.374024174259766" lon="9.176808892543507"><ele>217.66666666666666</ele><time>2026-04-28T09:37:32.9Z</time></trkpt><trkpt lat="39.37395258888356" lon="9.176851351367192"><ele>217.33333333333331</ele><time>2026-04-28T09:37:44.9Z</time></trkpt><trkpt lat="39.373878518508796" lon="9.17690732376232"><ele>217.0</ele><time>2026-04-28T09:37:48.9Z</time></trkpt><trkpt lat="39.37382209517091" lon="9.176952688825677"><ele>216.99999999999997</ele><time>2026-04-28T09:37:50.9Z</time></trkpt><trkpt lat="39.373791139529054" lon="9.17705605253377"><ele>217.0</ele><time>2026-04-28T09:37:52.9Z</time></trkpt><trkpt lat="39.37379384106395" lon="9.177190332497899"><ele>217.0</ele><time>2026-04-28T09:37:54.9Z</time></trkpt><trkpt lat="39.37381851807697" lon="9.177328661333902"><ele>217.0</ele><time>2026-04-28T09:37:56.9Z</time></trkpt><trkpt lat="39.373831409649625" lon="9.177409441168436"><ele>216.99999999999997</ele><time>2026-04-28T09:37:57.9Z</time></trkpt><trkpt lat="39.373850129592796" lon="9.17749914462488"><ele>217.0</ele><time>2026-04-28T09:37:58.9Z</time></trkpt><trkpt lat="39.373886145736826" lon="9.177591961699619"><ele>218.49999999999997</ele><time>2026-04-28T09:37:59.9Z</time></trkpt><trkpt lat="39.373911755332124" lon="9.177679697650365"><ele>220.0</ele><time>2026-04-28T09:38:00.9Z</time></trkpt><trkpt lat="39.373933853734414" lon="9.177756924305646"><ele>221.5</ele><time>2026-04-28T09:38:01.9Z</time></trkpt><trkpt lat="39.37394967876139" lon="9.177896460936529"><ele>223.0</ele><time>2026-04-28T09:38:03.9Z</time></trkpt><trkpt lat="39.37399249755424" lon="9.177958504935036"><ele>224.49999999999997</ele><time>2026-04-28T09:38:05.898Z</time></trkpt><trkpt lat="39.374026783246514" lon="9.178068102126888"><ele>226.0</ele><time>2026-04-28T09:38:07.898Z</time></trkpt><trkpt lat="39.37405293052922" lon="9.178182965301204"><ele>226.16666666666666</ele><time>2026-04-28T09:38:09.898Z</time></trkpt><trkpt lat="39.37409016041695" lon="9.178257041878997"><ele>226.33333333333331</ele><time>2026-04-28T09:38:10.898Z</time></trkpt><trkpt lat="39.37412853636329" lon="9.178353365300165"><ele>226.5</ele><time>2026-04-28T09:38:11.898Z</time></trkpt><trkpt lat="39.37415538254577" lon="9.17845071818472"><ele>226.66666666666669</ele><time>2026-04-28T09:38:12.898Z</time></trkpt><trkpt lat="39.374183134673494" lon="9.178623796843935"><ele>226.83333333333334</ele><time>2026-04-28T09:38:14.899Z</time></trkpt><trkpt lat="39.37420888800076" lon="9.178710953915594"><ele>227.0</ele><time>2026-04-28T09:38:15.899Z</time></trkpt><trkpt lat="39.37422032140121" lon="9.178800825131253"><ele>227.00000000000003</ele><time>2026-04-28T09:38:16.899Z</time></trkpt><trkpt lat="39.374254805593274" lon="9.178881765348715"><ele>227.0</ele><time>2026-04-28T09:38:17.898Z</time></trkpt><trkpt lat="39.3742861900837" lon="9.17896934483593"><ele>227.0</ele><time>2026-04-28T09:38:18.898Z</time></trkpt><trkpt lat="39.374312547214046" lon="9.179067958078036"><ele>227.0</ele><time>2026-04-28T09:38:19.898Z</time></trkpt><trkpt lat="39.374337710768195" lon="9.179169336424911"><ele>227.00000000000003</ele><time>2026-04-28T09:38:20.898Z</time></trkpt><trkpt lat="39.37436140860767" lon="9.179272818856605"><ele>227.0</ele><time>2026-04-28T09:38:21.898Z</time></trkpt><trkpt lat="39.37437611010662" lon="9.179387530238856"><ele>227.39999999999998</ele><time>2026-04-28T09:38:22.898Z</time></trkpt><trkpt lat="39.37439772552535" lon="9.179506047020501"><ele>227.79999999999998</ele><time>2026-04-28T09:38:23.898Z</time></trkpt><trkpt lat="39.374432103136456" lon="9.179634688465235"><ele>228.2</ele><time>2026-04-28T09:38:24.898Z</time></trkpt><trkpt lat="39.374464403756676" lon="9.179752619040888"><ele>228.6</ele><time>2026-04-28T09:38:25.898Z</time></trkpt><trkpt lat="39.37450475058629" lon="9.179868682996547"><ele>229.0</ele><time>2026-04-28T09:38:26.898Z</time></trkpt><trkpt lat="39.37454715348409" lon="9.17998256750472"><ele>229.39999999999998</ele><time>2026-04-28T09:38:27.898Z</time></trkpt><trkpt lat="39.37460014936043" lon="9.180084509429523"><ele>229.79999999999998</ele><time>2026-04-28T09:38:28.898Z</time></trkpt><trkpt lat="39.37465535328754" lon="9.18018695818252"><ele>230.20000000000002</ele><time>2026-04-28T09:38:29.899Z</time></trkpt><trkpt lat="39.37470705059528" lon="9.180275382366547"><ele>230.60000000000002</ele><time>2026-04-28T09:38:30.899Z</time></trkpt><trkpt lat="39.374755452708946" lon="9.180360483282726"><ele>231.0</ele><time>2026-04-28T09:38:31.899Z</time></trkpt><trkpt lat="39.374808902821634" lon="9.180496115084676"><ele>231.5</ele><time>2026-04-28T09:38:33.899Z</time></trkpt><trkpt lat="39.37484112507129" lon="9.180567851946993"><ele>232.0</ele><time>2026-04-28T09:38:34.899Z</time></trkpt><trkpt lat="39.37491216912349" lon="9.180607061184856"><ele>232.5</ele><time>2026-04-28T09:38:35.899Z</time></trkpt><trkpt lat="39.374946577035736" lon="9.18072213649286"><ele>233.0</ele><time>2026-04-28T09:38:36.899Z</time></trkpt><trkpt lat="39.37499504109332" lon="9.180829370302225"><ele>233.5</ele><time>2026-04-28T09:38:37.899Z</time></trkpt><trkpt lat="39.37506928438097" lon="9.18094179226921"><ele>234.0</ele><time>2026-04-28T09:38:38.899Z</time></trkpt><trkpt lat="39.37514950831979" lon="9.181058302300114"><ele>234.0</ele><time>2026-04-28T09:38:39.899Z</time></trkpt><trkpt lat="39.375221171612566" lon="9.181168241131717"><ele>233.99999999999997</ele><time>2026-04-28T09:38:40.899Z</time></trkpt><trkpt lat="39.37528702918176" lon="9.181264623591181"><ele>233.99999999999997</ele><time>2026-04-28T09:38:41.899Z</time></trkpt><trkpt lat="39.37534992440411" lon="9.181347719012908"><ele>234.0</ele><time>2026-04-28T09:38:42.899Z</time></trkpt><trkpt lat="39.37540665225967" lon="9.181428393699209"><ele>234.0</ele><time>2026-04-28T09:38:43.899Z</time></trkpt><trkpt lat="39.37545954649634" lon="9.181499293517971"><ele>233.83333333333334</ele><time>2026-04-28T09:38:44.899Z</time></trkpt><trkpt lat="39.37550395383141" lon="9.181571928562693"><ele>233.66666666666669</ele><time>2026-04-28T09:38:45.899Z</time></trkpt><trkpt lat="39.375557030824844" lon="9.181634989782973"><ele>233.5</ele><time>2026-04-28T09:38:46.899Z</time></trkpt><trkpt lat="39.3756237177258" lon="9.181709947209582"><ele>233.33333333333334</ele><time>2026-04-28T09:38:47.899Z</time></trkpt><trkpt lat="39.37568699880766" lon="9.181786304280152"><ele>233.16666666666669</ele><time>2026-04-28T09:38:48.899Z</time></trkpt><trkpt lat="39.37575090091619" lon="9.181866710418657"><ele>233.0</ele><time>2026-04-28T09:38:49.899Z</time></trkpt><trkpt lat="39.37580678809182" lon="9.181936564777239"><ele>233.50000000000003</ele><time>2026-04-28T09:38:50.899Z</time></trkpt><trkpt lat="39.37585569547319" lon="9.181992116806947"><ele>234.0</ele><time>2026-04-28T09:38:51.899Z</time></trkpt><trkpt lat="39.375921130427315" lon="9.182084029676314"><ele>234.5</ele><time>2026-04-28T09:38:53.899Z</time></trkpt><trkpt lat="39.376043504815534" lon="9.182012972553778"><ele>235.0</ele><time>2026-04-28T09:38:56.899Z</time></trkpt><trkpt lat="39.376100344072896" lon="9.18194826642005"><ele>235.50000000000003</ele><time>2026-04-28T09:38:57.899Z</time></trkpt><trkpt lat="39.3761493401447" lon="9.181895284741692"><ele>236.0</ele><time>2026-04-28T09:38:58.899Z</time></trkpt><trkpt lat="39.376201365061995" lon="9.181821467169609"><ele>236.0</ele><time>2026-04-28T09:38:59.899Z</time></trkpt><trkpt lat="39.37626161150896" lon="9.1817180949213"><ele>236.00000000000003</ele><time>2026-04-28T09:39:00.899Z</time></trkpt><trkpt lat="39.37632521948303" lon="9.181619645940081"><ele>236.00000000000003</ele><time>2026-04-28T09:39:01.899Z</time></trkpt><trkpt lat="39.37638958233406" lon="9.181524020250427"><ele>236.0</ele><time>2026-04-28T09:39:02.899Z</time></trkpt><trkpt lat="39.376458846907305" lon="9.18143499854257"><ele>236.0</ele><time>2026-04-28T09:39:03.899Z</time></trkpt><trkpt lat="39.376519862946544" lon="9.181330786698895"><ele>236.8</ele><time>2026-04-28T09:39:04.899Z</time></trkpt><trkpt lat="39.376579046580666" lon="9.181238888263357"><ele>237.60000000000002</ele><time>2026-04-28T09:39:05.899Z</time></trkpt><trkpt lat="39.37664209301418" lon="9.18114671661297"><ele>238.4</ele><time>2026-04-28T09:39:06.899Z</time></trkpt><trkpt lat="39.37672257245225" lon="9.181083949920783"><ele>239.2</ele><time>2026-04-28T09:39:07.899Z</time></trkpt><trkpt lat="39.37680940017461" lon="9.181023065711289"><ele>240.0</ele><time>2026-04-28T09:39:08.899Z</time></trkpt><trkpt lat="39.37686724851494" lon="9.180940518335278"><ele>240.0</ele><time>2026-04-28T09:39:09.899Z</time></trkpt><trkpt lat="39.37695434637618" lon="9.180867239609094"><ele>240.0</ele><time>2026-04-28T09:39:11.899Z</time></trkpt><trkpt lat="39.37704265493694" lon="9.180845043416813"><ele>240.0</ele><time>2026-04-28T09:39:17.899Z</time></trkpt><trkpt lat="39.37713966012821" lon="9.180850098955721"><ele>240.0</ele><time>2026-04-28T09:39:19.899Z</time></trkpt><trkpt lat="39.377203829865635" lon="9.180846225585165"><ele>240.0</ele><time>2026-04-28T09:39:20.899Z</time></trkpt><trkpt lat="39.37730267423005" lon="9.180830281123335"><ele>239.4</ele><time>2026-04-28T09:39:22.899Z</time></trkpt><trkpt lat="39.37736821625539" lon="9.18082132256868"><ele>238.8</ele><time>2026-04-28T09:39:25.9Z</time></trkpt><trkpt lat="39.377403421544805" lon="9.180980815720256"><ele>238.2</ele><time>2026-04-28T09:39:28.9Z</time></trkpt><trkpt lat="39.37740630871883" lon="9.1810743225876"><ele>237.6</ele><time>2026-04-28T09:39:29.9Z</time></trkpt><trkpt lat="39.37740954911534" lon="9.181179269191276"><ele>237.0</ele><time>2026-04-28T09:39:30.9Z</time></trkpt><trkpt lat="39.37741392239333" lon="9.18132090633085"><ele>237.0</ele><time>2026-04-28T09:39:31.9Z</time></trkpt><trkpt lat="39.37741803178103" lon="9.181453997124633"><ele>237.0</ele><time>2026-04-28T09:39:32.9Z</time></trkpt><trkpt lat="39.37742213977603" lon="9.181587042540691"><ele>237.0</ele><time>2026-04-28T09:39:33.9Z</time></trkpt><trkpt lat="39.37742573634006" lon="9.181703524284396"><ele>237.0</ele><time>2026-04-28T09:39:34.9Z</time></trkpt><trkpt lat="39.37742943160717" lon="9.181815485336402"><ele>237.0</ele><time>2026-04-28T09:39:35.9Z</time></trkpt><trkpt lat="39.377442789847954" lon="9.181923516192565"><ele>237.2</ele><time>2026-04-28T09:39:36.9Z</time></trkpt><trkpt lat="39.377461302534876" lon="9.182046194242963"><ele>237.39999999999998</ele><time>2026-04-28T09:39:37.9Z</time></trkpt><trkpt lat="39.37745639654304" lon="9.182147413720278"><ele>237.60000000000002</ele><time>2026-04-28T09:39:38.9Z</time></trkpt><trkpt lat="39.377435334201856" lon="9.182256221385305"><ele>237.8</ele><time>2026-04-28T09:39:39.9Z</time></trkpt><trkpt lat="39.377439822341444" lon="9.18238453954375"><ele>238.0</ele><time>2026-04-28T09:39:40.9Z</time></trkpt><trkpt lat="39.37744499149448" lon="9.182532328278757"><ele>238.0</ele><time>2026-04-28T09:39:41.9Z</time></trkpt><trkpt lat="39.3774500578246" lon="9.182677177275613"><ele>238.0</ele><time>2026-04-28T09:39:42.9Z</time></trkpt><trkpt lat="39.37745545131054" lon="9.182831379631281"><ele>238.0</ele><time>2026-04-28T09:39:43.9Z</time></trkpt><trkpt lat="39.377461357898206" lon="9.183018116030198"><ele>238.0</ele><time>2026-04-28T09:39:44.9Z</time></trkpt><trkpt lat="39.37745928765627" lon="9.18317578692987"><ele>238.25</ele><time>2026-04-28T09:39:45.9Z</time></trkpt><trkpt lat="39.377447752088756" lon="9.183322019157359"><ele>238.5</ele><time>2026-04-28T09:39:46.9Z</time></trkpt><trkpt lat="39.37742822577677" lon="9.183473800298518"><ele>238.75</ele><time>2026-04-28T09:39:47.9Z</time></trkpt><trkpt lat="39.37740131890811" lon="9.183637412494617"><ele>239.0</ele><time>2026-04-28T09:39:48.9Z</time></trkpt><trkpt lat="39.37737421851843" lon="9.18380253189193"><ele>239.0</ele><time>2026-04-28T09:39:49.9Z</time></trkpt><trkpt lat="39.37734778961498" lon="9.183963558844406"><ele>239.0</ele><time>2026-04-28T09:39:50.9Z</time></trkpt><trkpt lat="39.377321768693946" lon="9.184127283253309"><ele>239.0</ele><time>2026-04-28T09:39:51.9Z</time></trkpt><trkpt lat="39.37729675997054" lon="9.184282706225469"><ele>239.0</ele><time>2026-04-28T09:39:52.9Z</time></trkpt><trkpt lat="39.37727256472968" lon="9.184433073635432"><ele>238.79999999999998</ele><time>2026-04-28T09:39:53.9Z</time></trkpt><trkpt lat="39.377249982112154" lon="9.184573418267293"><ele>238.59999999999997</ele><time>2026-04-28T09:39:54.9Z</time></trkpt><trkpt lat="39.377232964372375" lon="9.184686808139157"><ele>238.4</ele><time>2026-04-28T09:39:55.9Z</time></trkpt><trkpt lat="39.37721540023921" lon="9.184802811564454"><ele>238.2</ele><time>2026-04-28T09:39:56.9Z</time></trkpt><trkpt lat="39.37719592160931" lon="9.184933581415287"><ele>238.0</ele><time>2026-04-28T09:39:57.9Z</time></trkpt><trkpt lat="39.37754039729628" lon="9.18490666232557"><ele>237.66666666666666</ele><time>2026-04-28T09:39:58.9Z</time></trkpt><trkpt lat="39.37763344669242" lon="9.185039845165404"><ele>237.33333333333331</ele><time>2026-04-28T09:39:59.9Z</time></trkpt><trkpt lat="39.377742972500236" lon="9.185191476349296"><ele>237.0</ele><time>2026-04-28T09:40:00.9Z</time></trkpt><trkpt lat="39.37789882837331" lon="9.185383629388268"><ele>235.66666666666669</ele><time>2026-04-28T09:40:01.9Z</time></trkpt><trkpt lat="39.37803981793345" lon="9.185547234670757"><ele>234.33333333333334</ele><time>2026-04-28T09:40:02.9Z</time></trkpt><trkpt lat="39.37819216597223" lon="9.185739009577688"><ele>233.0</ele><time>2026-04-28T09:40:03.9Z</time></trkpt><trkpt lat="39.37833818366033" lon="9.185926624438945"><ele>232.5</ele><time>2026-04-28T09:40:04.9Z</time></trkpt><trkpt lat="39.37849995370488" lon="9.18612989332564"><ele>232.0</ele><time>2026-04-28T09:40:05.9Z</time></trkpt><trkpt lat="39.37866569982338" lon="9.186340880206718"><ele>232.0</ele><time>2026-04-28T09:40:06.9Z</time></trkpt><trkpt lat="39.37882565642043" lon="9.186569281302566"><ele>232.0</ele><time>2026-04-28T09:40:07.9Z</time></trkpt><trkpt lat="39.37899123389021" lon="9.186753344732725"><ele>231.0</ele><time>2026-04-28T09:40:08.9Z</time></trkpt><trkpt lat="39.379164520351644" lon="9.186975057234882"><ele>230.0</ele><time>2026-04-28T09:40:09.9Z</time></trkpt><trkpt lat="39.37933444357528" lon="9.187175369008084"><ele>235.0</ele><time>2026-04-28T09:40:10.898Z</time></trkpt><trkpt lat="39.37738419866927" lon="9.187461566028924"><ele>235.0</ele><time>2026-04-28T09:40:11.898Z</time></trkpt><trkpt lat="39.37741723732923" lon="9.187632975700607"><ele>235.0</ele><time>2026-04-28T09:40:12.898Z</time></trkpt><trkpt lat="39.37743777849994" lon="9.187792889132227"><ele>235.0</ele><time>2026-04-28T09:40:13.898Z</time></trkpt><trkpt lat="39.377476273605" lon="9.18796288323033"><ele>235.0</ele><time>2026-04-28T09:40:14.898Z</time></trkpt><trkpt lat="39.37751188966011" lon="9.188130050782888"><ele>235.75</ele><time>2026-04-28T09:40:15.898Z</time></trkpt><trkpt lat="39.377554434098954" lon="9.188303660960248"><ele>236.5</ele><time>2026-04-28T09:40:16.899Z</time></trkpt><trkpt lat="39.37759536542121" lon="9.188489902340683"><ele>237.25</ele><time>2026-04-28T09:40:17.898Z</time></trkpt><trkpt lat="39.377632463239" lon="9.18867477054551"><ele>238.0</ele><time>2026-04-28T09:40:18.898Z</time></trkpt><trkpt lat="39.37766394924044" lon="9.188854722371248"><ele>237.66666666666666</ele><time>2026-04-28T09:40:19.898Z</time></trkpt><trkpt lat="39.37769509578153" lon="9.189041876870832"><ele>237.33333333333331</ele><time>2026-04-28T09:40:20.898Z</time></trkpt><trkpt lat="39.37772527724107" lon="9.189231211771949"><ele>237.0</ele><time>2026-04-28T09:40:21.898Z</time></trkpt><trkpt lat="39.37775596500271" lon="9.189430488390725"><ele>237.0</ele><time>2026-04-28T09:40:22.899Z</time></trkpt><trkpt lat="39.37778624738157" lon="9.18963074413096"><ele>237.0</ele><time>2026-04-28T09:40:23.898Z</time></trkpt><trkpt lat="39.37781752814496" lon="9.189824975050097"><ele>237.0</ele><time>2026-04-28T09:40:24.898Z</time></trkpt><trkpt lat="39.37784837991432" lon="9.190020725894907"><ele>236.75</ele><time>2026-04-28T09:40:25.898Z</time></trkpt><trkpt lat="39.377876444485864" lon="9.190204752513605"><ele>236.5</ele><time>2026-04-28T09:40:26.898Z</time></trkpt><trkpt lat="39.37790231481477" lon="9.190390304504513"><ele>236.25</ele><time>2026-04-28T09:40:27.898Z</time></trkpt><trkpt lat="39.37792775049082" lon="9.190564602635513"><ele>236.0</ele><time>2026-04-28T09:40:28.898Z</time></trkpt><trkpt lat="39.377941779868365" lon="9.190747563600956"><ele>236.0</ele><time>2026-04-28T09:40:29.898Z</time></trkpt><trkpt lat="39.37796904170719" lon="9.19092622311668"><ele>236.0</ele><time>2026-04-28T09:40:30.898Z</time></trkpt><trkpt lat="39.377999168563925" lon="9.19111337359544"><ele>236.0</ele><time>2026-04-28T09:40:31.898Z</time></trkpt><trkpt lat="39.378031654899246" lon="9.191308778034829"><ele>236.0</ele><time>2026-04-28T09:40:32.899Z</time></trkpt><trkpt lat="39.37805893280654" lon="9.1915014009395"><ele>235.33333333333334</ele><time>2026-04-28T09:40:33.899Z</time></trkpt><trkpt lat="39.37808844276829" lon="9.191702631141368"><ele>234.66666666666669</ele><time>2026-04-28T09:40:34.899Z</time></trkpt><trkpt lat="39.37811321564616" lon="9.191907881556823"><ele>234.0</ele><time>2026-04-28T09:40:35.899Z</time></trkpt><trkpt lat="39.37814753957314" lon="9.192120627006346"><ele>234.0</ele><time>2026-04-28T09:40:36.899Z</time></trkpt><trkpt lat="39.37818093830299" lon="9.19232868326035"><ele>234.0</ele><time>2026-04-28T09:40:37.899Z</time></trkpt><trkpt lat="39.37822192312523" lon="9.192536293274578"><ele>234.0</ele><time>2026-04-28T09:40:38.899Z</time></trkpt><trkpt lat="39.37826010010411" lon="9.192739802331209"><ele>234.0</ele><time>2026-04-28T09:40:39.899Z</time></trkpt><trkpt lat="39.378289017577316" lon="9.192946140811388"><ele>234.0</ele><time>2026-04-28T09:40:40.899Z</time></trkpt><trkpt lat="39.37833754780316" lon="9.19315132360578"><ele>234.0</ele><time>2026-04-28T09:40:41.899Z</time></trkpt><trkpt lat="39.37837670139089" lon="9.19335977565637"><ele>234.0</ele><time>2026-04-28T09:40:42.899Z</time></trkpt><trkpt lat="39.37841768199154" lon="9.193576197584688"><ele>234.0</ele><time>2026-04-28T09:40:43.899Z</time></trkpt><trkpt lat="39.37845941928121" lon="9.19379137824509"><ele>234.0</ele><time>2026-04-28T09:40:44.899Z</time></trkpt><trkpt lat="39.3784987421267" lon="9.194000978842361"><ele>233.33333333333331</ele><time>2026-04-28T09:40:45.899Z</time></trkpt><trkpt lat="39.378543448292" lon="9.194205230015578"><ele>232.66666666666666</ele><time>2026-04-28T09:40:46.899Z</time></trkpt><trkpt lat="39.37859476329072" lon="9.194412244393515"><ele>232.0</ele><time>2026-04-28T09:40:47.899Z</time></trkpt><trkpt lat="39.37865319951698" lon="9.194617766946818"><ele>232.0</ele><time>2026-04-28T09:40:48.899Z</time></trkpt><trkpt lat="39.37871744481919" lon="9.194811272636075"><ele>232.0</ele><time>2026-04-28T09:40:49.899Z</time></trkpt><trkpt lat="39.37879141171494" lon="9.195006557889378"><ele>232.0</ele><time>2026-04-28T09:40:50.899Z</time></trkpt><trkpt lat="39.378868027427295" lon="9.195196921683609"><ele>232.0</ele><time>2026-04-28T09:40:51.899Z</time></trkpt><trkpt lat="39.37894363651273" lon="9.195389708395348"><ele>232.0</ele><time>2026-04-28T09:40:52.899Z</time></trkpt><trkpt lat="39.37901049434658" lon="9.195587033080297"><ele>232.0</ele><time>2026-04-28T09:40:53.899Z</time></trkpt><trkpt lat="39.379057897121726" lon="9.195794474262149"><ele>233.0</ele><time>2026-04-28T09:40:54.899Z</time></trkpt><trkpt lat="39.37909681613855" lon="9.196014322507263"><ele>234.0</ele><time>2026-04-28T09:40:55.899Z</time></trkpt><trkpt lat="39.379137797530205" lon="9.196224203465764"><ele>235.0</ele><time>2026-04-28T09:40:56.899Z</time></trkpt><trkpt lat="39.37918772876058" lon="9.196429167331893"><ele>236.0</ele><time>2026-04-28T09:40:57.899Z</time></trkpt><trkpt lat="39.37924482466245" lon="9.196624945556836"><ele>237.0</ele><time>2026-04-28T09:40:58.899Z</time></trkpt><trkpt lat="39.37930184963857" lon="9.196827476032217"><ele>238.0</ele><time>2026-04-28T09:40:59.899Z</time></trkpt><trkpt lat="39.37936190151576" lon="9.197026204595455"><ele>238.0</ele><time>2026-04-28T09:41:00.899Z</time></trkpt><trkpt lat="39.379425030474714" lon="9.197232191029425"><ele>238.0</ele><time>2026-04-28T09:41:01.899Z</time></trkpt><trkpt lat="39.37948184891156" lon="9.197432861554825"><ele>238.0</ele><time>2026-04-28T09:41:02.899Z</time></trkpt><trkpt lat="39.37953432408303" lon="9.197644475863747"><ele>239.0</ele><time>2026-04-28T09:41:03.899Z</time></trkpt><trkpt lat="39.37958611786649" lon="9.197844301022057"><ele>240.0</ele><time>2026-04-28T09:41:04.899Z</time></trkpt><trkpt lat="39.37961162663781" lon="9.198038233571813"><ele>241.0</ele><time>2026-04-28T09:41:05.899Z</time></trkpt><trkpt lat="39.37961587895295" lon="9.19822875525634"><ele>241.0</ele><time>2026-04-28T09:41:06.899Z</time></trkpt><trkpt lat="39.37962091557475" lon="9.198425688707191"><ele>241.0</ele><time>2026-04-28T09:41:07.899Z</time></trkpt><trkpt lat="39.37961944781714" lon="9.198636113151311"><ele>241.0</ele><time>2026-04-28T09:41:08.899Z</time></trkpt><trkpt lat="39.37964911292207" lon="9.198855568610744"><ele>241.33333333333331</ele><time>2026-04-28T09:41:09.899Z</time></trkpt><trkpt lat="39.379676909962654" lon="9.199083521715565"><ele>241.66666666666669</ele><time>2026-04-28T09:41:10.899Z</time></trkpt><trkpt lat="39.3797060897777" lon="9.199306863892039"><ele>242.0</ele><time>2026-04-28T09:41:11.899Z</time></trkpt><trkpt lat="39.37972362133491" lon="9.199540754769641"><ele>243.0</ele><time>2026-04-28T09:41:12.899Z</time></trkpt><trkpt lat="39.3797159361841" lon="9.19977580333173"><ele>244.0</ele><time>2026-04-28T09:41:13.899Z</time></trkpt><trkpt lat="39.37973397244777" lon="9.200011740001898"><ele>245.0</ele><time>2026-04-28T09:41:14.899Z</time></trkpt><trkpt lat="39.37973722812323" lon="9.200237829585886"><ele>245.33333333333334</ele><time>2026-04-28T09:41:15.899Z</time></trkpt><trkpt lat="39.37973641525346" lon="9.200465683809977"><ele>245.66666666666669</ele><time>2026-04-28T09:41:16.899Z</time></trkpt><trkpt lat="39.37974586383935" lon="9.200692780004152"><ele>246.0</ele><time>2026-04-28T09:41:17.899Z</time></trkpt><trkpt lat="39.37973637344495" lon="9.20092690758068"><ele>247.66666666666669</ele><time>2026-04-28T09:41:18.899Z</time></trkpt><trkpt lat="39.379740942014564" lon="9.201152046580143"><ele>249.33333333333334</ele><time>2026-04-28T09:41:19.899Z</time></trkpt><trkpt lat="39.379745076119285" lon="9.2013818710089"><ele>251.0</ele><time>2026-04-28T09:41:20.899Z</time></trkpt><trkpt lat="39.37976015766939" lon="9.20159533976207"><ele>252.0</ele><time>2026-04-28T09:41:21.899Z</time></trkpt><trkpt lat="39.379759813051514" lon="9.20180724555675"><ele>253.0</ele><time>2026-04-28T09:41:22.899Z</time></trkpt><trkpt lat="39.379759624311674" lon="9.202019512089263"><ele>254.0</ele><time>2026-04-28T09:41:23.899Z</time></trkpt><trkpt lat="39.379757211476644" lon="9.20224014197635"><ele>254.0</ele><time>2026-04-28T09:41:24.899Z</time></trkpt><trkpt lat="39.37975476072182" lon="9.202463173363732"><ele>254.0</ele><time>2026-04-28T09:41:25.899Z</time></trkpt><trkpt lat="39.37973884809162" lon="9.2026821040141"><ele>254.0</ele><time>2026-04-28T09:41:26.9Z</time></trkpt><trkpt lat="39.37975204702731" lon="9.20288055174024"><ele>254.0</ele><time>2026-04-28T09:41:27.9Z</time></trkpt><trkpt lat="39.379755941758475" lon="9.203072602795908"><ele>254.0</ele><time>2026-04-28T09:41:28.9Z</time></trkpt><trkpt lat="39.37976580256943" lon="9.203265225479623"><ele>254.0</ele><time>2026-04-28T09:41:29.9Z</time></trkpt><trkpt lat="39.379784387551204" lon="9.203456051185919"><ele>254.0</ele><time>2026-04-28T09:41:30.9Z</time></trkpt><trkpt lat="39.37981869458165" lon="9.203660272855236"><ele>254.33333333333334</ele><time>2026-04-28T09:41:31.9Z</time></trkpt><trkpt lat="39.37985994331736" lon="9.203864412990614"><ele>254.66666666666669</ele><time>2026-04-28T09:41:32.9Z</time></trkpt><trkpt lat="39.379908249973525" lon="9.204072609563383"><ele>255.0</ele><time>2026-04-28T09:41:33.9Z</time></trkpt><trkpt lat="39.379945288957785" lon="9.204287084379809"><ele>255.33333333333331</ele><time>2026-04-28T09:41:34.9Z</time></trkpt><trkpt lat="39.3799722865813" lon="9.204497771392763"><ele>255.66666666666666</ele><time>2026-04-28T09:41:35.9Z</time></trkpt><trkpt lat="39.379967968511984" lon="9.2047173986441"><ele>256.0</ele><time>2026-04-28T09:41:36.9Z</time></trkpt><trkpt lat="39.379973811104804" lon="9.204944072794484"><ele>256.66666666666663</ele><time>2026-04-28T09:41:37.9Z</time></trkpt><trkpt lat="39.37997627430405" lon="9.205161823933846"><ele>257.3333333333333</ele><time>2026-04-28T09:41:38.9Z</time></trkpt><trkpt lat="39.379986334428764" lon="9.205387749325178"><ele>258.0</ele><time>2026-04-28T09:41:39.9Z</time></trkpt><trkpt lat="39.37998605561034" lon="9.205621039119885"><ele>258.0</ele><time>2026-04-28T09:41:40.9Z</time></trkpt><trkpt lat="39.37998349295426" lon="9.205855399177988"><ele>258.0</ele><time>2026-04-28T09:41:41.9Z</time></trkpt><trkpt lat="39.37997183195994" lon="9.20609661783369"><ele>258.0</ele><time>2026-04-28T09:41:42.9Z</time></trkpt><trkpt lat="39.37994414110154" lon="9.20634365641234"><ele>257.6666666666667</ele><time>2026-04-28T09:41:43.9Z</time></trkpt><trkpt lat="39.379930996230996" lon="9.206600249664902"><ele>257.33333333333337</ele><time>2026-04-28T09:41:44.9Z</time></trkpt><trkpt lat="39.3799178804454" lon="9.20685231555626"><ele>257.0</ele><time>2026-04-28T09:41:45.9Z</time></trkpt><trkpt lat="39.37990186888598" lon="9.207109159308631"><ele>257.0</ele><time>2026-04-28T09:41:46.9Z</time></trkpt><trkpt lat="39.37987479459389" lon="9.207366088031046"><ele>257.0</ele><time>2026-04-28T09:41:47.9Z</time></trkpt><trkpt lat="39.37986145234515" lon="9.207619003479156"><ele>257.0</ele><time>2026-04-28T09:41:48.9Z</time></trkpt><trkpt lat="39.379847007326596" lon="9.207874758351538"><ele>257.0</ele><time>2026-04-28T09:41:49.9Z</time></trkpt><trkpt lat="39.37982643043195" lon="9.20813515390671"><ele>257.0</ele><time>2026-04-28T09:41:50.9Z</time></trkpt><trkpt lat="39.379806128007345" lon="9.20838240175421"><ele>257.0</ele><time>2026-04-28T09:41:51.9Z</time></trkpt><trkpt lat="39.37978792399321" lon="9.20863681965646"><ele>257.6666666666667</ele><time>2026-04-28T09:41:52.9Z</time></trkpt><trkpt lat="39.37977539515476" lon="9.208896039426376"><ele>258.3333333333333</ele><time>2026-04-28T09:41:53.9Z</time></trkpt><trkpt lat="39.37977071246845" lon="9.209149161259688"><ele>259.0</ele><time>2026-04-28T09:41:54.9Z</time></trkpt><trkpt lat="39.37976805538794" lon="9.20939383536341"><ele>259.66666666666663</ele><time>2026-04-28T09:41:55.9Z</time></trkpt><trkpt lat="39.379769211432404" lon="9.209626338518667"><ele>260.3333333333333</ele><time>2026-04-28T09:41:56.9Z</time></trkpt><trkpt lat="39.379766433433765" lon="9.209834944664355"><ele>261.0</ele><time>2026-04-28T09:41:57.9Z</time></trkpt><trkpt lat="39.37975558920381" lon="9.210028397294737"><ele>261.0</ele><time>2026-04-28T09:41:58.9Z</time></trkpt><trkpt lat="39.37970837352205" lon="9.210201980817736"><ele>261.0</ele><time>2026-04-28T09:41:59.9Z</time></trkpt><trkpt lat="39.379652571467616" lon="9.210376586291373"><ele>261.0</ele><time>2026-04-28T09:42:00.9Z</time></trkpt><trkpt lat="39.37958802402047" lon="9.2105590548582"><ele>261.0</ele><time>2026-04-28T09:42:01.9Z</time></trkpt><trkpt lat="39.3795231789364" lon="9.21074490294684"><ele>262.0</ele><time>2026-04-28T09:42:02.9Z</time></trkpt><trkpt lat="39.37947468138997" lon="9.210941245083353"><ele>263.0</ele><time>2026-04-28T09:42:03.9Z</time></trkpt><trkpt lat="39.37942166089463" lon="9.211134106252642"><ele>264.0</ele><time>2026-04-28T09:42:04.9Z</time></trkpt><trkpt lat="39.37935679370595" lon="9.21134075922919"><ele>264.6666666666667</ele><time>2026-04-28T09:42:05.9Z</time></trkpt><trkpt lat="39.37930113442821" lon="9.21153805211708"><ele>265.33333333333337</ele><time>2026-04-28T09:42:06.9Z</time></trkpt><trkpt lat="39.37924225646552" lon="9.211743321339606"><ele>266.0</ele><time>2026-04-28T09:42:07.9Z</time></trkpt><trkpt lat="39.37919419140601" lon="9.2119396815326"><ele>266.0</ele><time>2026-04-28T09:42:08.9Z</time></trkpt><trkpt lat="39.37915491011824" lon="9.212146851016206"><ele>266.0</ele><time>2026-04-28T09:42:09.9Z</time></trkpt><trkpt lat="39.37911730785657" lon="9.21235171446566"><ele>266.0</ele><time>2026-04-28T09:42:10.9Z</time></trkpt><trkpt lat="39.37908953012835" lon="9.212555898707754"><ele>266.6666666666667</ele><time>2026-04-28T09:42:11.9Z</time></trkpt><trkpt lat="39.37905463961765" lon="9.212770686814764"><ele>267.3333333333333</ele><time>2026-04-28T09:42:12.9Z</time></trkpt><trkpt lat="39.3790186323045" lon="9.212983283449159"><ele>268.0</ele><time>2026-04-28T09:42:13.9Z</time></trkpt><trkpt lat="39.378981148271414" lon="9.213201810641639"><ele>269.0</ele><time>2026-04-28T09:42:14.9Z</time></trkpt><trkpt lat="39.37894093491475" lon="9.213421571583872"><ele>270.0</ele><time>2026-04-28T09:42:15.9Z</time></trkpt><trkpt lat="39.37890354895266" lon="9.213639376477156"><ele>271.0</ele><time>2026-04-28T09:42:16.898Z</time></trkpt><trkpt lat="39.378864830702504" lon="9.213863672998643"><ele>272.3333333333333</ele><time>2026-04-28T09:42:17.898Z</time></trkpt><trkpt lat="39.378826411385944" lon="9.214080432751608"><ele>273.6666666666667</ele><time>2026-04-28T09:42:18.898Z</time></trkpt><trkpt lat="39.378784198675966" lon="9.214308928096827"><ele>275.0</ele><time>2026-04-28T09:42:19.899Z</time></trkpt><trkpt lat="39.37874705263454" lon="9.214539129416321"><ele>275.0</ele><time>2026-04-28T09:42:20.898Z</time></trkpt><trkpt lat="39.37870760837944" lon="9.2147460891196"><ele>275.0</ele><time>2026-04-28T09:42:21.898Z</time></trkpt><trkpt lat="39.378671389375434" lon="9.214934809460052"><ele>275.0</ele><time>2026-04-28T09:42:22.899Z</time></trkpt><trkpt lat="39.37864076571408" lon="9.215093976034671"><ele>275.0</ele><time>2026-04-28T09:42:23.898Z</time></trkpt><trkpt lat="39.37862162728233" lon="9.215231522318799"><ele>275.8</ele><time>2026-04-28T09:42:24.898Z</time></trkpt><trkpt lat="39.37862653227575" lon="9.215364065488465"><ele>276.6</ele><time>2026-04-28T09:42:25.898Z</time></trkpt><trkpt lat="39.37866382035792" lon="9.215489423150686"><ele>277.4</ele><time>2026-04-28T09:42:26.899Z</time></trkpt><trkpt lat="39.37872759687712" lon="9.215615259523833"><ele>278.2</ele><time>2026-04-28T09:42:27.899Z</time></trkpt><trkpt lat="39.37880753987976" lon="9.215732599210106"><ele>279.0</ele><time>2026-04-28T09:42:28.898Z</time></trkpt><trkpt lat="39.37890439100634" lon="9.215853802529578"><ele>280.0</ele><time>2026-04-28T09:42:29.899Z</time></trkpt><trkpt lat="39.379012286747304" lon="9.215977706271023"><ele>281.0</ele><time>2026-04-28T09:42:30.899Z</time></trkpt><trkpt lat="39.37911111180804" lon="9.216098673791075"><ele>282.0</ele><time>2026-04-28T09:42:31.899Z</time></trkpt><trkpt lat="39.37920725713303" lon="9.216219081896277"><ele>283.0</ele><time>2026-04-28T09:42:32.899Z</time></trkpt><trkpt lat="39.37929682342647" lon="9.216335280606406"><ele>283.0</ele><time>2026-04-28T09:42:33.899Z</time></trkpt><trkpt lat="39.37937725361364" lon="9.21644584001982"><ele>283.0</ele><time>2026-04-28T09:42:34.899Z</time></trkpt><trkpt lat="39.379431316794765" lon="9.21657100672595"><ele>283.0</ele><time>2026-04-28T09:42:35.899Z</time></trkpt><trkpt lat="39.379465745676825" lon="9.216730901198863"><ele>283.0</ele><time>2026-04-28T09:42:36.899Z</time></trkpt><trkpt lat="39.37949975178529" lon="9.216885218412754"><ele>283.25</ele><time>2026-04-28T09:42:37.899Z</time></trkpt><trkpt lat="39.3795216607901" lon="9.217034147588176"><ele>283.5</ele><time>2026-04-28T09:42:38.899Z</time></trkpt><trkpt lat="39.37953949110937" lon="9.217160175710097"><ele>283.75</ele><time>2026-04-28T09:42:39.899Z</time></trkpt><trkpt lat="39.379561281696" lon="9.217308768411227"><ele>284.0</ele><time>2026-04-28T09:42:40.899Z</time></trkpt><trkpt lat="39.37958524556287" lon="9.217463177596414"><ele>282.33333333333337</ele><time>2026-04-28T09:42:41.899Z</time></trkpt><trkpt lat="39.37961045602134" lon="9.217642919044717"><ele>280.6666666666667</ele><time>2026-04-28T09:42:42.899Z</time></trkpt><trkpt lat="39.37963754524453" lon="9.217834570672276"><ele>279.0</ele><time>2026-04-28T09:42:43.899Z</time></trkpt><trkpt lat="39.37966907849495" lon="9.218038974525797"><ele>276.6666666666667</ele><time>2026-04-28T09:42:44.899Z</time></trkpt><trkpt lat="39.379698981041486" lon="9.218248143130714"><ele>274.33333333333337</ele><time>2026-04-28T09:42:45.899Z</time></trkpt><trkpt lat="39.37973136143014" lon="9.218455303935901"><ele>272.0</ele><time>2026-04-28T09:42:46.899Z</time></trkpt><trkpt lat="39.37976604656325" lon="9.21866358703472"><ele>272.0</ele><time>2026-04-28T09:42:47.899Z</time></trkpt><trkpt lat="39.3798073273212" lon="9.218864968639595"><ele>272.0</ele><time>2026-04-28T09:42:48.899Z</time></trkpt><trkpt lat="39.37983879317981" lon="9.219036192538185"><ele>272.0</ele><time>2026-04-28T09:42:49.899Z</time></trkpt><trkpt lat="39.37986034388824" lon="9.219208209767398"><ele>272.0</ele><time>2026-04-28T09:42:50.899Z</time></trkpt><trkpt lat="39.379857388744504" lon="9.219380305988958"><ele>272.0</ele><time>2026-04-28T09:42:51.899Z</time></trkpt><trkpt lat="39.37984532678785" lon="9.219551776859351"><ele>272.0</ele><time>2026-04-28T09:42:52.899Z</time></trkpt><trkpt lat="39.37982719832147" lon="9.219736427224193"><ele>272.0</ele><time>2026-04-28T09:42:53.899Z</time></trkpt><trkpt lat="39.379807731205226" lon="9.219919920524932"><ele>272.0</ele><time>2026-04-28T09:42:54.899Z</time></trkpt><trkpt lat="39.37978772350083" lon="9.220108137746799"><ele>271.75</ele><time>2026-04-28T09:42:55.899Z</time></trkpt><trkpt lat="39.37976536233182" lon="9.220293284451722"><ele>271.5</ele><time>2026-04-28T09:42:56.899Z</time></trkpt><trkpt lat="39.37974389869299" lon="9.220470999076278"><ele>271.25</ele><time>2026-04-28T09:42:57.899Z</time></trkpt><trkpt lat="39.379734922959706" lon="9.220645708322907"><ele>271.0</ele><time>2026-04-28T09:42:58.899Z</time></trkpt><trkpt lat="39.379710402571654" lon="9.220824134612823"><ele>271.75</ele><time>2026-04-28T09:42:59.899Z</time></trkpt><trkpt lat="39.37968352307562" lon="9.22099863255317"><ele>272.5</ele><time>2026-04-28T09:43:00.899Z</time></trkpt><trkpt lat="39.379659842982086" lon="9.221171469890432"><ele>273.25</ele><time>2026-04-28T09:43:01.899Z</time></trkpt><trkpt lat="39.37963459305704" lon="9.221346141773813"><ele>274.0</ele><time>2026-04-28T09:43:02.899Z</time></trkpt><trkpt lat="39.379601539518916" lon="9.22152234712987"><ele>274.0</ele><time>2026-04-28T09:43:03.899Z</time></trkpt><trkpt lat="39.379567691885605" lon="9.221692125466294"><ele>274.0</ele><time>2026-04-28T09:43:04.899Z</time></trkpt><trkpt lat="39.37951558513658" lon="9.221858651511136"><ele>274.0</ele><time>2026-04-28T09:43:05.899Z</time></trkpt><trkpt lat="39.37948668830159" lon="9.222026718454702"><ele>274.0</ele><time>2026-04-28T09:43:06.899Z</time></trkpt><trkpt lat="39.379420047662144" lon="9.222172798550936"><ele>274.25</ele><time>2026-04-28T09:43:07.899Z</time></trkpt><trkpt lat="39.37936450937887" lon="9.222331859601884"><ele>274.5</ele><time>2026-04-28T09:43:08.899Z</time></trkpt><trkpt lat="39.37930641372638" lon="9.222490305103403"><ele>274.75</ele><time>2026-04-28T09:43:09.899Z</time></trkpt><trkpt lat="39.37924608673236" lon="9.222642556339567"><ele>275.0</ele><time>2026-04-28T09:43:10.899Z</time></trkpt><trkpt lat="39.37918868964627" lon="9.222805482880895"><ele>275.0</ele><time>2026-04-28T09:43:11.899Z</time></trkpt><trkpt lat="39.37913747631515" lon="9.222964043341019"><ele>275.0</ele><time>2026-04-28T09:43:12.899Z</time></trkpt><trkpt lat="39.37908832895808" lon="9.22312728991476"><ele>275.0</ele><time>2026-04-28T09:43:13.899Z</time></trkpt><trkpt lat="39.37904170099129" lon="9.223298466786277"><ele>275.0</ele><time>2026-04-28T09:43:14.9Z</time></trkpt><trkpt lat="39.37900122668002" lon="9.223469824250666"><ele>275.25</ele><time>2026-04-28T09:43:15.9Z</time></trkpt><trkpt lat="39.37896174673844" lon="9.223640435286672"><ele>275.5</ele><time>2026-04-28T09:43:16.9Z</time></trkpt><trkpt lat="39.378924241676735" lon="9.223810692224136"><ele>275.75</ele><time>2026-04-28T09:43:17.9Z</time></trkpt><trkpt lat="39.378883471326105" lon="9.223974766602302"><ele>276.0</ele><time>2026-04-28T09:43:18.9Z</time></trkpt><trkpt lat="39.378842034207736" lon="9.224130748587115"><ele>278.0</ele><time>2026-04-28T09:43:19.9Z</time></trkpt><trkpt lat="39.37880685827953" lon="9.22428577126359"><ele>280.0</ele><time>2026-04-28T09:43:20.9Z</time></trkpt><trkpt lat="39.37877230984685" lon="9.224432775286127"><ele>282.0</ele><time>2026-04-28T09:43:21.9Z</time></trkpt><trkpt lat="39.37873642049149" lon="9.22458382428284"><ele>284.0</ele><time>2026-04-28T09:43:22.9Z</time></trkpt><trkpt lat="39.3787062866365" lon="9.224711205221414"><ele>283.8</ele><time>2026-04-28T09:43:23.9Z</time></trkpt><trkpt lat="39.37865885074577" lon="9.224832740494907"><ele>283.59999999999997</ele><time>2026-04-28T09:43:24.9Z</time></trkpt><trkpt lat="39.37861379146263" lon="9.224957335910357"><ele>283.4</ele><time>2026-04-28T09:43:25.9Z</time></trkpt><trkpt lat="39.378571089041074" lon="9.225092448267503"><ele>283.2</ele><time>2026-04-28T09:43:26.9Z</time></trkpt><trkpt lat="39.37852582409322" lon="9.225226527234874"><ele>283.0</ele><time>2026-04-28T09:43:27.9Z</time></trkpt><trkpt lat="39.37847781891064" lon="9.22535852817017"><ele>283.0</ele><time>2026-04-28T09:43:28.9Z</time></trkpt><trkpt lat="39.37842881793163" lon="9.225496407161945"><ele>283.0</ele><time>2026-04-28T09:43:29.9Z</time></trkpt><trkpt lat="39.378373484981836" lon="9.225644721059743"><ele>283.0</ele><time>2026-04-28T09:43:30.9Z</time></trkpt><trkpt lat="39.37831087403189" lon="9.22579454276796"><ele>283.0</ele><time>2026-04-28T09:43:31.9Z</time></trkpt><trkpt lat="39.378247859398066" lon="9.225943931728693"><ele>283.2</ele><time>2026-04-28T09:43:32.9Z</time></trkpt><trkpt lat="39.378188690639746" lon="9.226086100526016"><ele>283.4</ele><time>2026-04-28T09:43:33.9Z</time></trkpt><trkpt lat="39.37812778537235" lon="9.226221518781083"><ele>283.59999999999997</ele><time>2026-04-28T09:43:34.9Z</time></trkpt><trkpt lat="39.3780756444868" lon="9.226328034594145"><ele>283.8</ele><time>2026-04-28T09:43:35.9Z</time></trkpt><trkpt lat="39.37803829364019" lon="9.22643514268286"><ele>284.0</ele><time>2026-04-28T09:43:36.9Z</time></trkpt><trkpt lat="39.37801356714422" lon="9.226536170078008"><ele>286.25</ele><time>2026-04-28T09:43:37.9Z</time></trkpt><trkpt lat="39.37799651229611" lon="9.226660686601416"><ele>288.5</ele><time>2026-04-28T09:43:38.9Z</time></trkpt><trkpt lat="39.37799386941872" lon="9.226799721174517"><ele>290.75</ele><time>2026-04-28T09:43:39.9Z</time></trkpt><trkpt lat="39.37797222153554" lon="9.226960743672956"><ele>293.0</ele><time>2026-04-28T09:43:40.9Z</time></trkpt><trkpt lat="39.37798000831388" lon="9.227116954451557"><ele>293.0</ele><time>2026-04-28T09:43:41.9Z</time></trkpt><trkpt lat="39.37794272495776" lon="9.227262974020778"><ele>293.0</ele><time>2026-04-28T09:43:42.9Z</time></trkpt><trkpt lat="39.37791448839802" lon="9.227417908970546"><ele>293.0</ele><time>2026-04-28T09:43:43.9Z</time></trkpt><trkpt lat="39.37788194828735" lon="9.227575916146186"><ele>293.0</ele><time>2026-04-28T09:43:44.9Z</time></trkpt><trkpt lat="39.37785752330219" lon="9.227738534385297"><ele>293.5</ele><time>2026-04-28T09:43:45.9Z</time></trkpt><trkpt lat="39.37781561363821" lon="9.2278965207607"><ele>294.0</ele><time>2026-04-28T09:43:46.9Z</time></trkpt><trkpt lat="39.37777403696327" lon="9.228054910295304"><ele>294.5</ele><time>2026-04-28T09:43:47.9Z</time></trkpt><trkpt lat="39.377732752396845" lon="9.228218348623752"><ele>295.0</ele><time>2026-04-28T09:43:48.9Z</time></trkpt><trkpt lat="39.377697583377966" lon="9.228382319609684"><ele>295.0</ele><time>2026-04-28T09:43:49.9Z</time></trkpt><trkpt lat="39.377669552371565" lon="9.228543862148571"><ele>295.0</ele><time>2026-04-28T09:43:50.9Z</time></trkpt><trkpt lat="39.37764547951935" lon="9.228710472873795"><ele>295.0</ele><time>2026-04-28T09:43:51.9Z</time></trkpt><trkpt lat="39.377621323854626" lon="9.22887324700289"><ele>295.0</ele><time>2026-04-28T09:43:52.9Z</time></trkpt><trkpt lat="39.377583807685255" lon="9.229029845697363"><ele>294.5</ele><time>2026-04-28T09:43:53.9Z</time></trkpt><trkpt lat="39.37753988956579" lon="9.229192709364792"><ele>294.0</ele><time>2026-04-28T09:43:54.9Z</time></trkpt><trkpt lat="39.37749511066795" lon="9.22934777270094"><ele>293.5</ele><time>2026-04-28T09:43:55.9Z</time></trkpt><trkpt lat="39.377440736058325" lon="9.229501584943227"><ele>293.0</ele><time>2026-04-28T09:43:56.9Z</time></trkpt><trkpt lat="39.37738512485737" lon="9.229651219485083"><ele>293.0</ele><time>2026-04-28T09:43:57.9Z</time></trkpt><trkpt lat="39.37732416149948" lon="9.229791041692211"><ele>293.0</ele><time>2026-04-28T09:43:58.9Z</time></trkpt><trkpt lat="39.3772575439474" lon="9.229924260111957"><ele>293.0</ele><time>2026-04-28T09:43:59.9Z</time></trkpt><trkpt lat="39.37719299192711" lon="9.230057209457403"><ele>293.0</ele><time>2026-04-28T09:44:00.9Z</time></trkpt><trkpt lat="39.37712757662637" lon="9.230186054730094"><ele>294.5</ele><time>2026-04-28T09:44:01.9Z</time></trkpt><trkpt lat="39.377059336500324" lon="9.230308523924224"><ele>296.0</ele><time>2026-04-28T09:44:02.9Z</time></trkpt><trkpt lat="39.37698716327738" lon="9.23043492308356"><ele>297.5</ele><time>2026-04-28T09:44:03.9Z</time></trkpt><trkpt lat="39.3769150392686" lon="9.23056927327635"><ele>299.0</ele><time>2026-04-28T09:44:04.9Z</time></trkpt><trkpt lat="39.37684334416631" lon="9.230713111208622"><ele>299.0</ele><time>2026-04-28T09:44:05.9Z</time></trkpt><trkpt lat="39.376771511716385" lon="9.23085801965576"><ele>299.0</ele><time>2026-04-28T09:44:06.9Z</time></trkpt><trkpt lat="39.37670083945819" lon="9.23101492889654"><ele>299.0</ele><time>2026-04-28T09:44:07.9Z</time></trkpt><trkpt lat="39.37662417726904" lon="9.231166004559604"><ele>299.0</ele><time>2026-04-28T09:44:08.901Z</time></trkpt><trkpt lat="39.376558818750354" lon="9.231318201969145"><ele>299.0</ele><time>2026-04-28T09:44:09.901Z</time></trkpt><trkpt lat="39.376498750122316" lon="9.231478717017614"><ele>299.0</ele><time>2026-04-28T09:44:10.901Z</time></trkpt><trkpt lat="39.37644459447061" lon="9.231641600090263"><ele>299.0</ele><time>2026-04-28T09:44:11.901Z</time></trkpt><trkpt lat="39.37639240656848" lon="9.231806854044908"><ele>299.0</ele><time>2026-04-28T09:44:12.901Z</time></trkpt><trkpt lat="39.37634027239651" lon="9.2319678626386"><ele>301.0</ele><time>2026-04-28T09:44:13.901Z</time></trkpt><trkpt lat="39.37629232590432" lon="9.23213205347182"><ele>303.0</ele><time>2026-04-28T09:44:14.901Z</time></trkpt><trkpt lat="39.376245208050854" lon="9.232292078811643"><ele>305.0</ele><time>2026-04-28T09:44:15.901Z</time></trkpt><trkpt lat="39.376196792075994" lon="9.23242469886761"><ele>307.0</ele><time>2026-04-28T09:44:16.901Z</time></trkpt><trkpt lat="39.37613729538115" lon="9.232544498550034"><ele>307.0</ele><time>2026-04-28T09:44:17.901Z</time></trkpt><trkpt lat="39.37607814855996" lon="9.232651448871465"><ele>307.0</ele><time>2026-04-28T09:44:18.901Z</time></trkpt><trkpt lat="39.37599417314728" lon="9.232736795926494"><ele>307.0</ele><time>2026-04-28T09:44:19.901Z</time></trkpt><trkpt lat="39.37589671679917" lon="9.232818098816217"><ele>307.0</ele><time>2026-04-28T09:44:20.901Z</time></trkpt><trkpt lat="39.375794608228134" lon="9.232891386924083"><ele>307.0</ele><time>2026-04-28T09:44:21.901Z</time></trkpt><trkpt lat="39.375699046467425" lon="9.232967541115965"><ele>307.0</ele><time>2026-04-28T09:44:22.899Z</time></trkpt><trkpt lat="39.375598317769565" lon="9.233025502448344"><ele>307.0</ele><time>2026-04-28T09:44:23.899Z</time></trkpt><trkpt lat="39.377583807685255" lon="9.229029845697363"><ele>303.5</ele><time>2026-04-28T09:43:53.9Z</time></trkpt><trkpt lat="39.37753988956579" lon="9.229192709364792"><ele>300.0</ele><time>2026-04-28T09:43:54.9Z</time></trkpt><trkpt lat="39.37749511066795" lon="9.22934777270094"><ele>296.5</ele><time>2026-04-28T09:43:55.9Z</time></trkpt><trkpt lat="39.377440736058325" lon="9.229501584943227"><ele>293.0</ele><time>2026-04-28T09:43:56.9Z</time></trkpt><trkpt lat="39.37738512485737" lon="9.229651219485083"><ele>293.0</ele><time>2026-04-28T09:43:57.9Z</time></trkpt><trkpt lat="39.37732416149948" lon="9.229791041692211"><ele>293.0</ele><time>2026-04-28T09:43:58.9Z</time></trkpt><trkpt lat="39.3772575439474" lon="9.229924260111957"><ele>293.0</ele><time>2026-04-28T09:43:59.9Z</time></trkpt><trkpt lat="39.37719299192711" lon="9.230057209457403"><ele>293.0</ele><time>2026-04-28T09:44:00.9Z</time></trkpt><trkpt lat="39.37712757662637" lon="9.230186054730094"><ele>294.5</ele><time>2026-04-28T09:44:01.9Z</time></trkpt><trkpt lat="39.377059336500324" lon="9.230308523924224"><ele>296.0</ele><time>2026-04-28T09:44:02.9Z</time></trkpt><trkpt lat="39.37698716327738" lon="9.23043492308356"><ele>297.5</ele><time>2026-04-28T09:44:03.9Z</time></trkpt><trkpt lat="39.3769150392686" lon="9.23056927327635"><ele>299.0</ele><time>2026-04-28T09:44:04.9Z</time></trkpt><trkpt lat="39.37684334416631" lon="9.230713111208622"><ele>299.0</ele><time>2026-04-28T09:44:05.9Z</time></trkpt><trkpt lat="39.376771511716385" lon="9.23085801965576"><ele>299.0</ele><time>2026-04-28T09:44:06.9Z</time></trkpt><trkpt lat="39.37670083945819" lon="9.23101492889654"><ele>299.0</ele><time>2026-04-28T09:44:07.9Z</time></trkpt><trkpt lat="39.37662417726904" lon="9.231166004559604"><ele>299.0</ele><time>2026-04-28T09:44:08.901Z</time></trkpt><trkpt lat="39.376558818750354" lon="9.231318201969145"><ele>299.0</ele><time>2026-04-28T09:44:09.901Z</time></trkpt><trkpt lat="39.376498750122316" lon="9.231478717017614"><ele>299.0</ele><time>2026-04-28T09:44:10.901Z</time></trkpt><trkpt lat="39.37644459447061" lon="9.231641600090263"><ele>299.0</ele><time>2026-04-28T09:44:11.901Z</time></trkpt><trkpt lat="39.37639240656848" lon="9.231806854044908"><ele>299.0</ele><time>2026-04-28T09:44:12.901Z</time></trkpt><trkpt lat="39.37634027239651" lon="9.2319678626386"><ele>301.0</ele><time>2026-04-28T09:44:13.901Z</time></trkpt><trkpt lat="39.37629232590432" lon="9.23213205347182"><ele>303.0</ele><time>2026-04-28T09:44:14.901Z</time></trkpt><trkpt lat="39.376245208050854" lon="9.232292078811643"><ele>305.0</ele><time>2026-04-28T09:44:15.901Z</time></trkpt><trkpt lat="39.376196792075994" lon="9.23242469886761"><ele>307.0</ele><time>2026-04-28T09:44:16.901Z</time></trkpt><trkpt lat="39.37613729538115" lon="9.232544498550034"><ele>307.0</ele><time>2026-04-28T09:44:17.901Z</time></trkpt><trkpt lat="39.37607814855996" lon="9.232651448871465"><ele>307.0</ele><time>2026-04-28T09:44:18.901Z</time></trkpt><trkpt lat="39.37599417314728" lon="9.232736795926494"><ele>307.0</ele><time>2026-04-28T09:44:19.901Z</time></trkpt><trkpt lat="39.37589671679917" lon="9.232818098816217"><ele>307.0</ele><time>2026-04-28T09:44:20.901Z</time></trkpt><trkpt lat="39.375794608228134" lon="9.232891386924083"><ele>307.0</ele><time>2026-04-28T09:44:21.901Z</time></trkpt><trkpt lat="39.375699046467425" lon="9.232967541115965"><ele>307.0</ele><time>2026-04-28T09:44:22.899Z</time></trkpt><trkpt lat="39.375598317769565" lon="9.233025502448344"><ele>307.0</ele><time>2026-04-28T09:44:23.899Z</time></trkpt><trkpt lat="39.37549319429215" lon="9.233066193309842"><ele>307.0</ele><time>2026-04-28T09:44:24.899Z</time></trkpt><trkpt lat="39.37538920297681" lon="9.233124628546589"><ele>307.0</ele><time>2026-04-28T09:44:25.899Z</time></trkpt><trkpt lat="39.37527926837104" lon="9.233194880861541"><ele>307.5</ele><time>2026-04-28T09:44:26.899Z</time></trkpt><trkpt lat="39.37517079081947" lon="9.233261534554547"><ele>308.0</ele><time>2026-04-28T09:44:27.899Z</time></trkpt><trkpt lat="39.37505638836715" lon="9.233335760988547"><ele>308.5</ele><time>2026-04-28T09:44:28.899Z</time></trkpt><trkpt lat="39.37494209948696" lon="9.233413280341125"><ele>309.0</ele><time>2026-04-28T09:44:29.899Z</time></trkpt><trkpt lat="39.37483175876396" lon="9.23348763736103"><ele>309.0</ele><time>2026-04-28T09:44:30.899Z</time></trkpt><trkpt lat="39.374715869250004" lon="9.233567190294387"><ele>309.0</ele><time>2026-04-28T09:44:31.899Z</time></trkpt><trkpt lat="39.374597820132955" lon="9.233645042544786"><ele>309.0</ele><time>2026-04-28T09:44:32.899Z</time></trkpt><trkpt lat="39.374476001851505" lon="9.233721822059696"><ele>309.0</ele><time>2026-04-28T09:44:33.899Z</time></trkpt><trkpt lat="39.37434134074663" lon="9.233807756902456"><ele>310.0</ele><time>2026-04-28T09:44:34.899Z</time></trkpt><trkpt lat="39.37420483979771" lon="9.233897238415762"><ele>311.0</ele><time>2026-04-28T09:44:35.899Z</time></trkpt><trkpt lat="39.37407566331872" lon="9.233953700524438"><ele>312.0</ele><time>2026-04-28T09:44:36.899Z</time></trkpt><trkpt lat="39.3739768695236" lon="9.234006372461568"><ele>313.0</ele><time>2026-04-28T09:44:37.899Z</time></trkpt><trkpt lat="39.37389095155426" lon="9.234051840979772"><ele>316.25</ele><time>2026-04-28T09:44:38.899Z</time></trkpt><trkpt lat="39.3737843473876" lon="9.234099563609055"><ele>319.5</ele><time>2026-04-28T09:44:39.899Z</time></trkpt><trkpt lat="39.37365859791676" lon="9.234148281732315"><ele>322.75</ele><time>2026-04-28T09:44:40.899Z</time></trkpt><trkpt lat="39.373539057529" lon="9.234194785399305"><ele>326.0</ele><time>2026-04-28T09:44:41.899Z</time></trkpt><trkpt lat="39.373442526844514" lon="9.23423780425315"><ele>326.0</ele><time>2026-04-28T09:44:42.899Z</time></trkpt><trkpt lat="39.373334764965904" lon="9.234292934540221"><ele>326.0</ele><time>2026-04-28T09:44:43.899Z</time></trkpt><trkpt lat="39.373228077685795" lon="9.234368837371013"><ele>326.0</ele><time>2026-04-28T09:44:44.899Z</time></trkpt><trkpt lat="39.373104899646826" lon="9.234416516994166"><ele>326.0</ele><time>2026-04-28T09:44:45.899Z</time></trkpt><trkpt lat="39.37299329054898" lon="9.234470645787225"><ele>328.20000000000005</ele><time>2026-04-28T09:44:46.899Z</time></trkpt><trkpt lat="39.37288270564815" lon="9.23452056179495"><ele>330.40000000000003</ele><time>2026-04-28T09:44:47.899Z</time></trkpt><trkpt lat="39.37277343204619" lon="9.234568318543657"><ele>332.6</ele><time>2026-04-28T09:44:48.899Z</time></trkpt><trkpt lat="39.37266894334206" lon="9.234598151685486"><ele>334.8</ele><time>2026-04-28T09:44:49.899Z</time></trkpt><trkpt lat="39.37256671766762" lon="9.234618444016942"><ele>337.0</ele><time>2026-04-28T09:44:50.899Z</time></trkpt><trkpt lat="39.372457543099046" lon="9.234633354980213"><ele>337.0</ele><time>2026-04-28T09:44:51.899Z</time></trkpt><trkpt lat="39.37234266772474" lon="9.234657363174097"><ele>337.0</ele><time>2026-04-28T09:44:52.899Z</time></trkpt><trkpt lat="39.372225143134735" lon="9.234672834098793"><ele>337.0</ele><time>2026-04-28T09:44:53.899Z</time></trkpt><trkpt lat="39.37210039803284" lon="9.234689918900266"><ele>337.0</ele><time>2026-04-28T09:44:54.899Z</time></trkpt><trkpt lat="39.37195946088646" lon="9.23473370524875"><ele>336.0</ele><time>2026-04-28T09:44:55.899Z</time></trkpt><trkpt lat="39.37181621042674" lon="9.234783412576755"><ele>335.0</ele><time>2026-04-28T09:44:56.899Z</time></trkpt><trkpt lat="39.371675514699554" lon="9.234828699911624"><ele>334.0</ele><time>2026-04-28T09:44:57.899Z</time></trkpt><trkpt lat="39.371537295097035" lon="9.234869129398549"><ele>333.0</ele><time>2026-04-28T09:44:58.899Z</time></trkpt><trkpt lat="39.37139987684172" lon="9.234909034096558"><ele>335.75</ele><time>2026-04-28T09:44:59.899Z</time></trkpt><trkpt lat="39.371267389308315" lon="9.234940491959835"><ele>338.5</ele><time>2026-04-28T09:45:00.899Z</time></trkpt><trkpt lat="39.37113351012449" lon="9.23496078629241"><ele>341.25</ele><time>2026-04-28T09:45:01.899Z</time></trkpt><trkpt lat="39.370996333676075" lon="9.234970418659247"><ele>344.0</ele><time>2026-04-28T09:45:02.899Z</time></trkpt><trkpt lat="39.37085692038754" lon="9.234979330308592"><ele>344.0</ele><time>2026-04-28T09:45:03.899Z</time></trkpt><trkpt lat="39.370719989065705" lon="9.23498963772579"><ele>344.0</ele><time>2026-04-28T09:45:04.899Z</time></trkpt><trkpt lat="39.37058615607191" lon="9.234996877756227"><ele>344.0</ele><time>2026-04-28T09:45:05.899Z</time></trkpt><trkpt lat="39.37046845038992" lon="9.235011339803592"><ele>344.0</ele><time>2026-04-28T09:45:06.899Z</time></trkpt><trkpt lat="39.37035367944658" lon="9.234996495046802"><ele>346.0</ele><time>2026-04-28T09:45:07.899Z</time></trkpt><trkpt lat="39.37023389054504" lon="9.235012275566088"><ele>348.0</ele><time>2026-04-28T09:45:08.899Z</time></trkpt><trkpt lat="39.370124442460025" lon="9.235062360454714"><ele>350.0</ele><time>2026-04-28T09:45:09.899Z</time></trkpt><trkpt lat="39.37001577116211" lon="9.235098534610792"><ele>352.0</ele><time>2026-04-28T09:45:10.899Z</time></trkpt><trkpt lat="39.36990688855721" lon="9.235140949425444"><ele>352.0</ele><time>2026-04-28T09:45:11.899Z</time></trkpt><trkpt lat="39.36980293110838" lon="9.235170746272793"><ele>352.0</ele><time>2026-04-28T09:45:12.899Z</time></trkpt><trkpt lat="39.36969832678438" lon="9.235192378343427"><ele>352.0</ele><time>2026-04-28T09:45:13.899Z</time></trkpt><trkpt lat="39.36958216522951" lon="9.235193408084008"><ele>352.0</ele><time>2026-04-28T09:45:14.9Z</time></trkpt><trkpt lat="39.3694734370706" lon="9.23520582828003"><ele>352.0</ele><time>2026-04-28T09:45:15.9Z</time></trkpt><trkpt lat="39.369357937626084" lon="9.235225200058816"><ele>354.20000000000005</ele><time>2026-04-28T09:45:16.9Z</time></trkpt><trkpt lat="39.369247486440095" lon="9.23525075538606"><ele>356.4</ele><time>2026-04-28T09:45:17.9Z</time></trkpt><trkpt lat="39.3691445527084" lon="9.235287580377713"><ele>358.6</ele><time>2026-04-28T09:45:18.9Z</time></trkpt><trkpt lat="39.36904770460853" lon="9.23534525373805"><ele>360.79999999999995</ele><time>2026-04-28T09:45:19.9Z</time></trkpt><trkpt lat="39.36895477355424" lon="9.235417511615138"><ele>363.0</ele><time>2026-04-28T09:45:20.9Z</time></trkpt><trkpt lat="39.368858151138" lon="9.235488889787492"><ele>363.0</ele><time>2026-04-28T09:45:21.9Z</time></trkpt><trkpt lat="39.368760997409154" lon="9.23555781521775"><ele>363.0</ele><time>2026-04-28T09:45:22.9Z</time></trkpt><trkpt lat="39.368659159942304" lon="9.235619851662115"><ele>363.0</ele><time>2026-04-28T09:45:23.9Z</time></trkpt><trkpt lat="39.3685540133416" lon="9.2356674759742"><ele>363.0</ele><time>2026-04-28T09:45:24.9Z</time></trkpt><trkpt lat="39.368443748402726" lon="9.2357177740893"><ele>363.0</ele><time>2026-04-28T09:45:25.9Z</time></trkpt><trkpt lat="39.368332678928844" lon="9.235758332601804"><ele>363.0</ele><time>2026-04-28T09:45:26.9Z</time></trkpt><trkpt lat="39.368232280110696" lon="9.23578863853407"><ele>363.0</ele><time>2026-04-28T09:45:27.9Z</time></trkpt><trkpt lat="39.36814369418205" lon="9.235808193903312"><ele>363.0</ele><time>2026-04-28T09:45:28.9Z</time></trkpt><trkpt lat="39.368055807401774" lon="9.235810907647302"><ele>363.0</ele><time>2026-04-28T09:45:29.9Z</time></trkpt><trkpt lat="39.367960212875985" lon="9.23578915294611"><ele>366.0</ele><time>2026-04-28T09:45:30.9Z</time></trkpt><trkpt lat="39.36787119613358" lon="9.23578193721723"><ele>369.0</ele><time>2026-04-28T09:45:31.9Z</time></trkpt><trkpt lat="39.36780647268435" lon="9.235748770161699"><ele>372.0</ele><time>2026-04-28T09:45:32.9Z</time></trkpt><trkpt lat="39.36768613786401" lon="9.235747040008254"><ele>375.0</ele><time>2026-04-28T09:45:34.9Z</time></trkpt><trkpt lat="39.3676223550695" lon="9.235813516819842"><ele>378.0</ele><time>2026-04-28T09:45:36.9Z</time></trkpt><trkpt lat="39.36755273636002" lon="9.235944226638921"><ele>378.0</ele><time>2026-04-28T09:45:38.9Z</time></trkpt><trkpt lat="39.36749110642035" lon="9.236017815828754"><ele>378.0</ele><time>2026-04-28T09:45:39.9Z</time></trkpt><trkpt lat="39.36740711528419" lon="9.236092821117815"><ele>378.0</ele><time>2026-04-28T09:45:40.9Z</time></trkpt><trkpt lat="39.36732035185977" lon="9.236147006232432"><ele>378.0</ele><time>2026-04-28T09:45:41.9Z</time></trkpt><trkpt lat="39.3672330967793" lon="9.236192423302253"><ele>378.0</ele><time>2026-04-28T09:45:42.9Z</time></trkpt><trkpt lat="39.36714146082804" lon="9.23621543109529"><ele>382.79999999999995</ele><time>2026-04-28T09:45:43.9Z</time></trkpt><trkpt lat="39.36704345805825" lon="9.236242154739541"><ele>387.6</ele><time>2026-04-28T09:45:44.9Z</time></trkpt><trkpt lat="39.366942108573014" lon="9.236274957137528"><ele>392.4</ele><time>2026-04-28T09:45:45.9Z</time></trkpt><trkpt lat="39.366838916882166" lon="9.23630684793543"><ele>397.20000000000005</ele><time>2026-04-28T09:45:46.9Z</time></trkpt><trkpt lat="39.36673448502712" lon="9.236345321919863"><ele>402.0</ele><time>2026-04-28T09:45:47.9Z</time></trkpt><trkpt lat="39.36664759886307" lon="9.236371645787354"><ele>402.0</ele><time>2026-04-28T09:45:48.9Z</time></trkpt><trkpt lat="39.3665634443377" lon="9.23638273678544"><ele>402.0</ele><time>2026-04-28T09:45:49.9Z</time></trkpt><trkpt lat="39.3664757157746" lon="9.236357188866586"><ele>402.0</ele><time>2026-04-28T09:45:50.9Z</time></trkpt><trkpt lat="39.36639308276986" lon="9.236314222946374"><ele>402.0</ele><time>2026-04-28T09:45:51.9Z</time></trkpt><trkpt lat="39.36632422708013" lon="9.236242878193229"><ele>402.0</ele><time>2026-04-28T09:45:52.9Z</time></trkpt><trkpt lat="39.36626484821157" lon="9.2361677993438"><ele>402.0</ele><time>2026-04-28T09:45:53.9Z</time></trkpt><trkpt lat="39.36620057069914" lon="9.236089922170626"><ele>403.0</ele><time>2026-04-28T09:45:54.9Z</time></trkpt><trkpt lat="39.36614291177604" lon="9.236004986189224"><ele>404.0</ele><time>2026-04-28T09:45:55.9Z</time></trkpt><trkpt lat="39.36607389857583" lon="9.2358994923646"><ele>405.0</ele><time>2026-04-28T09:45:57.9Z</time></trkpt><trkpt lat="39.365989450712284" lon="9.235848272684258"><ele>406.0</ele><time>2026-04-28T09:46:00.9Z</time></trkpt><trkpt lat="39.36576212196374" lon="9.236016006728173"><ele>406.0</ele><time>2026-04-28T09:46:03.9Z</time></trkpt><trkpt lat="39.36576627456692" lon="9.236109319564914"><ele>406.0</ele><time>2026-04-28T09:46:04.9Z</time></trkpt><trkpt lat="39.3657577833216" lon="9.235815464617804"><ele>406.0</ele><time>2026-04-28T09:46:05.9Z</time></trkpt><trkpt lat="39.365990308584834" lon="9.23589381107143"><ele>406.00000000000006</ele><time>2026-04-28T09:47:17.9Z</time></trkpt><trkpt lat="39.36603836086018" lon="9.235953277245308"><ele>406.0</ele><time>2026-04-28T09:47:18.9Z</time></trkpt><trkpt lat="39.36609685937114" lon="9.236039793699733"><ele>406.0</ele><time>2026-04-28T09:47:19.9Z</time></trkpt><trkpt lat="39.36615244504509" lon="9.2361290852616"><ele>406.0</ele><time>2026-04-28T09:47:20.9Z</time></trkpt><trkpt lat="39.36622033924939" lon="9.236212239676458"><ele>406.00000000000006</ele><time>2026-04-28T09:47:21.9Z</time></trkpt><trkpt lat="39.366293366696574" lon="9.236293887444031"><ele>406.0</ele><time>2026-04-28T09:47:22.9Z</time></trkpt><trkpt lat="39.36636516012734" lon="9.23635894234891"><ele>405.20000000000005</ele><time>2026-04-28T09:47:23.9Z</time></trkpt><trkpt lat="39.36643660997657" lon="9.236412479733124"><ele>404.40000000000003</ele><time>2026-04-28T09:47:24.9Z</time></trkpt><trkpt lat="39.366518238289856" lon="9.236440556918993"><ele>403.6</ele><time>2026-04-28T09:47:25.9Z</time></trkpt><trkpt lat="39.36661802818501" lon="9.236434373481758"><ele>402.8</ele><time>2026-04-28T09:47:26.9Z</time></trkpt><trkpt lat="39.36672676537545" lon="9.23640682718457"><ele>402.0</ele><time>2026-04-28T09:47:27.9Z</time></trkpt><trkpt lat="39.366865988687515" lon="9.236359215578998"><ele>402.0</ele><time>2026-04-28T09:47:28.9Z</time></trkpt><trkpt lat="39.36698522009609" lon="9.236311051492635"><ele>402.0</ele><time>2026-04-28T09:47:29.9Z</time></trkpt><trkpt lat="39.36709875235411" lon="9.236279993594577"><ele>402.0</ele><time>2026-04-28T09:47:30.9Z</time></trkpt><trkpt lat="39.36721581910623" lon="9.236252922997611"><ele>402.0</ele><time>2026-04-28T09:47:31.9Z</time></trkpt><trkpt lat="39.36732171274345" lon="9.236211349867364"><ele>398.0</ele><time>2026-04-28T09:47:32.9Z</time></trkpt><trkpt lat="39.36741584433515" lon="9.236147388040385"><ele>394.0</ele><time>2026-04-28T09:47:33.9Z</time></trkpt><trkpt lat="39.367500164203605" lon="9.236099547340562"><ele>390.0</ele><time>2026-04-28T09:47:34.9Z</time></trkpt><trkpt lat="39.36756449154191" lon="9.236025331839173"><ele>386.0</ele><time>2026-04-28T09:47:35.9Z</time></trkpt><trkpt lat="39.367612176155156" lon="9.23593462032784"><ele>382.0</ele><time>2026-04-28T09:47:36.9Z</time></trkpt><trkpt lat="39.367655092387295" lon="9.235849395781194"><ele>378.0</ele><time>2026-04-28T09:47:37.9Z</time></trkpt><trkpt lat="39.36775226762507" lon="9.235776467749643"><ele>378.0</ele><time>2026-04-28T09:47:39.9Z</time></trkpt><trkpt lat="39.3678270035058" lon="9.235782929009261"><ele>378.0</ele><time>2026-04-28T09:47:40.9Z</time></trkpt><trkpt lat="39.367918681996386" lon="9.23583529951176"><ele>378.0</ele><time>2026-04-28T09:47:41.9Z</time></trkpt><trkpt lat="39.36801076521565" lon="9.235874542396925"><ele>378.0</ele><time>2026-04-28T09:47:42.9Z</time></trkpt><trkpt lat="39.368116972919005" lon="9.23589045995138"><ele>378.0</ele><time>2026-04-28T09:47:43.9Z</time></trkpt><trkpt lat="39.36822449407349" lon="9.235854817732308"><ele>379.0</ele><time>2026-04-28T09:47:44.9Z</time></trkpt><trkpt lat="39.36834998467623" lon="9.23582173594976"><ele>380.0</ele><time>2026-04-28T09:47:45.9Z</time></trkpt><trkpt lat="39.36847727424507" lon="9.235752368464041"><ele>381.0</ele><time>2026-04-28T09:47:46.9Z</time></trkpt><trkpt lat="39.36860586499859" lon="9.235692048700672"><ele>382.0</ele><time>2026-04-28T09:47:47.9Z</time></trkpt><trkpt lat="39.368734476888626" lon="9.235615746429415"><ele>382.0</ele><time>2026-04-28T09:47:48.9Z</time></trkpt><trkpt lat="39.36885756274405" lon="9.235529505139194"><ele>382.0</ele><time>2026-04-28T09:47:49.9Z</time></trkpt><trkpt lat="39.368958052316756" lon="9.235441958995759"><ele>382.0</ele><time>2026-04-28T09:47:50.9Z</time></trkpt><trkpt lat="39.36905850131637" lon="9.235354639056636"><ele>382.0</ele><time>2026-04-28T09:47:51.9Z</time></trkpt><trkpt lat="39.36916198990229" lon="9.235293803557138"><ele>377.25</ele><time>2026-04-28T09:47:52.9Z</time></trkpt><trkpt lat="39.369272600009566" lon="9.235250182462432"><ele>372.5</ele><time>2026-04-28T09:47:53.9Z</time></trkpt><trkpt lat="39.36940193167508" lon="9.235263205561235"><ele>367.75</ele><time>2026-04-28T09:47:54.9Z</time></trkpt><trkpt lat="39.36954436314704" lon="9.235243595542613"><ele>363.0</ele><time>2026-04-28T09:47:55.9Z</time></trkpt><trkpt lat="39.369692126202175" lon="9.235216883499401"><ele>360.25</ele><time>2026-04-28T09:47:56.901Z</time></trkpt><trkpt lat="39.369832365168" lon="9.235195199597598"><ele>357.5</ele><time>2026-04-28T09:47:57.901Z</time></trkpt><trkpt lat="39.3699713230158" lon="9.235162227317655"><ele>354.75</ele><time>2026-04-28T09:47:58.901Z</time></trkpt><trkpt lat="39.37010603725859" lon="9.235112786294758"><ele>352.0</ele><time>2026-04-28T09:47:59.901Z</time></trkpt><trkpt lat="39.3702429281138" lon="9.2350682362469"><ele>352.0</ele><time>2026-04-28T09:48:00.901Z</time></trkpt><trkpt lat="39.370379169049464" lon="9.235035772668592"><ele>352.0</ele><time>2026-04-28T09:48:01.901Z</time></trkpt><trkpt lat="39.37051867832329" lon="9.235028174221371"><ele>352.0</ele><time>2026-04-28T09:48:02.901Z</time></trkpt><trkpt lat="39.37065505668718" lon="9.23502538583287"><ele>352.0</ele><time>2026-04-28T09:48:03.901Z</time></trkpt><trkpt lat="39.370784490142434" lon="9.235018851082572"><ele>350.0</ele><time>2026-04-28T09:48:04.901Z</time></trkpt><trkpt lat="39.370911147507314" lon="9.235016863116037"><ele>348.0</ele><time>2026-04-28T09:48:05.901Z</time></trkpt><trkpt lat="39.37103781525355" lon="9.235012238464035"><ele>346.0</ele><time>2026-04-28T09:48:06.901Z</time></trkpt><trkpt lat="39.37116504825741" lon="9.235002437620834"><ele>344.0</ele><time>2026-04-28T09:48:07.901Z</time></trkpt><trkpt lat="39.37129965227048" lon="9.23498059629991"><ele>340.33333333333337</ele><time>2026-04-28T09:48:08.901Z</time></trkpt><trkpt lat="39.371442981208965" lon="9.234947180433695"><ele>336.6666666666667</ele><time>2026-04-28T09:48:09.901Z</time></trkpt><trkpt lat="39.3715960388658" lon="9.23489995642062"><ele>333.0</ele><time>2026-04-28T09:48:10.901Z</time></trkpt><trkpt lat="39.3717624775858" lon="9.234857882002277"><ele>333.0</ele><time>2026-04-28T09:48:11.901Z</time></trkpt><trkpt lat="39.3719174687317" lon="9.234816046173782"><ele>333.0</ele><time>2026-04-28T09:48:12.901Z</time></trkpt><trkpt lat="39.372071752439645" lon="9.23477822358275"><ele>333.0</ele><time>2026-04-28T09:48:13.901Z</time></trkpt><trkpt lat="39.37223078861163" lon="9.2347467715184"><ele>334.3333333333333</ele><time>2026-04-28T09:48:14.901Z</time></trkpt><trkpt lat="39.37238619304541" lon="9.234716804682256"><ele>335.66666666666663</ele><time>2026-04-28T09:48:15.901Z</time></trkpt><trkpt lat="39.37254149761229" lon="9.234687991944673"><ele>337.0</ele><time>2026-04-28T09:48:16.901Z</time></trkpt><trkpt lat="39.37268105157395" lon="9.234650403771232"><ele>337.0</ele><time>2026-04-28T09:48:17.901Z</time></trkpt><trkpt lat="39.37282757906673" lon="9.23460195401001"><ele>337.0</ele><time>2026-04-28T09:48:18.901Z</time></trkpt><trkpt lat="39.372974485348216" lon="9.234536578293927"><ele>337.0</ele><time>2026-04-28T09:48:19.901Z</time></trkpt><trkpt lat="39.37312108831996" lon="9.234459425000535"><ele>333.3333333333333</ele><time>2026-04-28T09:48:20.901Z</time></trkpt><trkpt lat="39.37326775956664" lon="9.234378727963655"><ele>329.6666666666667</ele><time>2026-04-28T09:48:21.901Z</time></trkpt><trkpt lat="39.37342899836083" lon="9.23429467104185"><ele>326.0</ele><time>2026-04-28T09:48:22.901Z</time></trkpt><trkpt lat="39.37358115749963" lon="9.234221511122367"><ele>326.0</ele><time>2026-04-28T09:48:23.901Z</time></trkpt><trkpt lat="39.37374022664641" lon="9.234149347266387"><ele>326.0</ele><time>2026-04-28T09:48:24.901Z</time></trkpt><trkpt lat="39.37389970703889" lon="9.23407838488171"><ele>326.0</ele><time>2026-04-28T09:48:25.901Z</time></trkpt><trkpt lat="39.374052650836234" lon="9.23400280278947"><ele>325.0</ele><time>2026-04-28T09:48:26.901Z</time></trkpt><trkpt lat="39.374207127303265" lon="9.23391513482699"><ele>324.0</ele><time>2026-04-28T09:48:27.901Z</time></trkpt><trkpt lat="39.37436316031977" lon="9.233830744785273"><ele>323.0</ele><time>2026-04-28T09:48:28.901Z</time></trkpt><trkpt lat="39.37451717525863" lon="9.233733033672857"><ele>323.0</ele><time>2026-04-28T09:48:29.901Z</time></trkpt><trkpt lat="39.374677290058756" lon="9.233630357551359"><ele>323.0</ele><time>2026-04-28T09:48:30.901Z</time></trkpt><trkpt lat="39.37483399062479" lon="9.233528209371713"><ele>323.0</ele><time>2026-04-28T09:48:31.901Z</time></trkpt><trkpt lat="39.37499439080641" lon="9.233424386998214"><ele>321.6666666666667</ele><time>2026-04-28T09:48:32.901Z</time></trkpt><trkpt lat="39.37516123708311" lon="9.23331982549052"><ele>320.3333333333333</ele><time>2026-04-28T09:48:33.901Z</time></trkpt><trkpt lat="39.375318738831226" lon="9.233221541335396"><ele>319.0</ele><time>2026-04-28T09:48:34.901Z</time></trkpt><trkpt lat="39.375464579712116" lon="9.233132989873496"><ele>315.0</ele><time>2026-04-28T09:48:35.901Z</time></trkpt><trkpt lat="39.37560099935048" lon="9.233042957123605"><ele>311.0</ele><time>2026-04-28T09:48:36.901Z</time></trkpt><trkpt lat="39.37574029488075" lon="9.232953240358432"><ele>307.0</ele><time>2026-04-28T09:48:37.901Z</time></trkpt><trkpt lat="39.37587829327855" lon="9.232875263782228"><ele>307.0</ele><time>2026-04-28T09:48:38.9Z</time></trkpt><trkpt lat="39.375995479796" lon="9.23279712774429"><ele>307.0</ele><time>2026-04-28T09:48:39.9Z</time></trkpt><trkpt lat="39.37609044187305" lon="9.232720400785757"><ele>307.0</ele><time>2026-04-28T09:48:40.9Z</time></trkpt><trkpt lat="39.376165923062985" lon="9.232626107171747"><ele>307.0</ele><time>2026-04-28T09:48:41.901Z</time></trkpt><trkpt lat="39.37622544210219" lon="9.232500976812485"><ele>307.0</ele><time>2026-04-28T09:48:42.901Z</time></trkpt><trkpt lat="39.3762718069185" lon="9.232378781302222"><ele>307.0</ele><time>2026-04-28T09:48:43.9Z</time></trkpt><trkpt lat="39.376324108982885" lon="9.232224498290867"><ele>307.0</ele><time>2026-04-28T09:48:44.901Z</time></trkpt><trkpt lat="39.37637050189038" lon="9.232042571514922"><ele>307.0</ele><time>2026-04-28T09:48:45.901Z</time></trkpt><trkpt lat="39.37642064410799" lon="9.231864869823967"><ele>304.3333333333333</ele><time>2026-04-28T09:48:46.901Z</time></trkpt><trkpt lat="39.37648872434175" lon="9.231677395353133"><ele>301.6666666666667</ele><time>2026-04-28T09:48:47.901Z</time></trkpt><trkpt lat="39.37655563522925" lon="9.231480911485606"><ele>299.0</ele><time>2026-04-28T09:48:48.901Z</time></trkpt><trkpt lat="39.376631429215" lon="9.231275329542722"><ele>299.0</ele><time>2026-04-28T09:48:49.901Z</time></trkpt><trkpt lat="39.37671773702619" lon="9.2310693663552"><ele>299.0</ele><time>2026-04-28T09:48:50.901Z</time></trkpt><trkpt lat="39.37681510244781" lon="9.230866620141342"><ele>299.0</ele><time>2026-04-28T09:48:51.901Z</time></trkpt><trkpt lat="39.376914726391426" lon="9.230666264175824"><ele>300.0</ele><time>2026-04-28T09:48:52.901Z</time></trkpt><trkpt lat="39.37701052766785" lon="9.23048005998943"><ele>301.0</ele><time>2026-04-28T09:48:53.901Z</time></trkpt><trkpt lat="39.37709741420571" lon="9.230296649560811"><ele>302.0</ele><time>2026-04-28T09:48:54.901Z</time></trkpt><trkpt lat="39.37718321705414" lon="9.230123712581252"><ele>299.33333333333337</ele><time>2026-04-28T09:48:55.901Z</time></trkpt><trkpt lat="39.37726513649223" lon="9.229960009361992"><ele>296.6666666666667</ele><time>2026-04-28T09:48:56.901Z</time></trkpt><trkpt lat="39.377347985038355" lon="9.22979633917645"><ele>294.0</ele><time>2026-04-28T09:48:57.901Z</time></trkpt><trkpt lat="39.3774272014366" lon="9.229626049569266"><ele>293.6666666666667</ele><time>2026-04-28T09:48:58.901Z</time></trkpt><trkpt lat="39.37750391853307" lon="9.229439453712923"><ele>293.33333333333337</ele><time>2026-04-28T09:48:59.901Z</time></trkpt><trkpt lat="39.37756515098089" lon="9.229241315517996"><ele>293.0</ele><time>2026-04-28T09:49:00.901Z</time></trkpt><trkpt lat="39.37762021290482" lon="9.229045293380754"><ele>293.6666666666667</ele><time>2026-04-28T09:49:01.901Z</time></trkpt><trkpt lat="39.3776607795791" lon="9.228841393986476"><ele>294.3333333333333</ele><time>2026-04-28T09:49:02.901Z</time></trkpt><trkpt lat="39.377686119639996" lon="9.228645159793034"><ele>295.0</ele><time>2026-04-28T09:49:03.901Z</time></trkpt><trkpt lat="39.37770907365377" lon="9.22845833606664"><ele>295.0</ele><time>2026-04-28T09:49:04.901Z</time></trkpt><trkpt lat="39.377732342731626" lon="9.22826376751438"><ele>295.0</ele><time>2026-04-28T09:49:05.901Z</time></trkpt><trkpt lat="39.37777890806681" lon="9.22806799121779"><ele>295.0</ele><time>2026-04-28T09:49:06.901Z</time></trkpt><trkpt lat="39.377839606036574" lon="9.227855510775443"><ele>295.0</ele><time>2026-04-28T09:49:07.901Z</time></trkpt><trkpt lat="39.37789465555585" lon="9.227651779638661"><ele>295.0</ele><time>2026-04-28T09:49:08.901Z</time></trkpt><trkpt lat="39.37794226886702" lon="9.227467249168484"><ele>295.0</ele><time>2026-04-28T09:49:09.901Z</time></trkpt><trkpt lat="39.37797894923414" lon="9.227270359335021"><ele>294.5</ele><time>2026-04-28T09:49:10.901Z</time></trkpt><trkpt lat="39.3779998264466" lon="9.22707680633301"><ele>294.0</ele><time>2026-04-28T09:49:11.901Z</time></trkpt><trkpt lat="39.378012070941644" lon="9.2268953358404"><ele>293.5</ele><time>2026-04-28T09:49:12.901Z</time></trkpt><trkpt lat="39.378018092962904" lon="9.226741823923026"><ele>293.0</ele><time>2026-04-28T09:49:13.901Z</time></trkpt><trkpt lat="39.37802275640799" lon="9.226606243418086"><ele>291.6</ele><time>2026-04-28T09:49:14.901Z</time></trkpt><trkpt lat="39.37803745444143" lon="9.226485793586432"><ele>290.20000000000005</ele><time>2026-04-28T09:49:15.901Z</time></trkpt><trkpt lat="39.37808166379751" lon="9.226373292723935"><ele>288.8</ele><time>2026-04-28T09:49:16.901Z</time></trkpt><trkpt lat="39.378134206215506" lon="9.226272774568303"><ele>287.40000000000003</ele><time>2026-04-28T09:49:17.901Z</time></trkpt><trkpt lat="39.378193646296886" lon="9.226147815776713"><ele>286.0</ele><time>2026-04-28T09:49:18.901Z</time></trkpt><trkpt lat="39.37826975509308" lon="9.226012000845284"><ele>285.3333333333333</ele><time>2026-04-28T09:49:19.901Z</time></trkpt><trkpt lat="39.378345703281106" lon="9.225854459153869"><ele>284.6666666666667</ele><time>2026-04-28T09:49:20.9Z</time></trkpt><trkpt lat="39.37842056173089" lon="9.225661995073846"><ele>284.0</ele><time>2026-04-28T09:49:21.898Z</time></trkpt><trkpt lat="39.37849675069356" lon="9.225455111366486"><ele>283.6666666666667</ele><time>2026-04-28T09:49:22.897Z</time></trkpt><trkpt lat="39.37857088380441" lon="9.22524232152676"><ele>283.3333333333333</ele><time>2026-04-28T09:49:23.896Z</time></trkpt><trkpt lat="39.37864458319839" lon="9.225022978349118"><ele>283.0</ele><time>2026-04-28T09:49:24.895Z</time></trkpt><trkpt lat="39.37871322449382" lon="9.224832819776209"><ele>283.3333333333333</ele><time>2026-04-28T09:49:25.894Z</time></trkpt><trkpt lat="39.37877078314826" lon="9.22464006513111"><ele>283.6666666666667</ele><time>2026-04-28T09:49:26.893Z</time></trkpt><trkpt lat="39.378816897812705" lon="9.224445186028278"><ele>284.0</ele><time>2026-04-28T09:49:27.893Z</time></trkpt><trkpt lat="39.378856040270136" lon="9.224241119585953"><ele>282.33333333333337</ele><time>2026-04-28T09:49:28.892Z</time></trkpt><trkpt lat="39.37890020737445" lon="9.224020050313104"><ele>280.6666666666667</ele><time>2026-04-28T09:49:29.891Z</time></trkpt><trkpt lat="39.378952795983224" lon="9.223820108357325"><ele>279.0</ele><time>2026-04-28T09:49:30.89Z</time></trkpt><trkpt lat="39.37900080776379" lon="9.223635617549002"><ele>278.4</ele><time>2026-04-28T09:49:31.89Z</time></trkpt><trkpt lat="39.379038022218396" lon="9.223496579246628"><ele>277.79999999999995</ele><time>2026-04-28T09:49:32.889Z</time></trkpt><trkpt lat="39.379065371801794" lon="9.223385495067127"><ele>277.20000000000005</ele><time>2026-04-28T09:49:33.889Z</time></trkpt><trkpt lat="39.37909976583491" lon="9.223302986769019"><ele>276.6</ele><time>2026-04-28T09:49:35.888Z</time></trkpt><trkpt lat="39.37906477094278" lon="9.223385549745268"><ele>276.0</ele><time>2026-04-28T09:50:48.88Z</time></trkpt><trkpt lat="39.37933725936799" lon="9.223414007569971"><ele>276.0</ele><time>2026-04-28T09:50:50.88Z</time></trkpt><trkpt lat="39.37935584751089" lon="9.223508686409174"><ele>276.0</ele><time>2026-04-28T09:50:51.88Z</time></trkpt><trkpt lat="39.379440192612485" lon="9.223844593630439"><ele>276.0</ele><time>2026-04-28T09:50:52.88Z</time></trkpt><trkpt lat="39.37886802122888" lon="9.224044251775796"><ele>278.0</ele><time>2026-04-28T09:50:53.88Z</time></trkpt><trkpt lat="39.37883617479899" lon="9.22420524949477"><ele>280.0</ele><time>2026-04-28T09:50:54.88Z</time></trkpt><trkpt lat="39.37879777322017" lon="9.224381608597387"><ele>282.0</ele><time>2026-04-28T09:50:55.88Z</time></trkpt><trkpt lat="39.378750380616786" lon="9.224563491512315"><ele>284.0</ele><time>2026-04-28T09:50:56.88Z</time></trkpt><trkpt lat="39.37869416381072" lon="9.22474882123695"><ele>283.6666666666667</ele><time>2026-04-28T09:50:57.88Z</time></trkpt><trkpt lat="39.37862762014704" lon="9.224944108279024"><ele>283.3333333333333</ele><time>2026-04-28T09:50:58.88Z</time></trkpt><trkpt lat="39.378555828986926" lon="9.225140936965824"><ele>283.0</ele><time>2026-04-28T09:50:59.88Z</time></trkpt><trkpt lat="39.37848396153097" lon="9.225348852252434"><ele>283.0</ele><time>2026-04-28T09:51:00.88Z</time></trkpt><trkpt lat="39.37841554987733" lon="9.225550079479072"><ele>283.0</ele><time>2026-04-28T09:51:01.88Z</time></trkpt><trkpt lat="39.37834510980585" lon="9.22574546998768"><ele>283.0</ele><time>2026-04-28T09:51:02.88Z</time></trkpt><trkpt lat="39.3782670716082" lon="9.22593042980939"><ele>283.25</ele><time>2026-04-28T09:51:03.88Z</time></trkpt><trkpt lat="39.37818121736752" lon="9.22610107070016"><ele>283.5</ele><time>2026-04-28T09:51:04.88Z</time></trkpt><trkpt lat="39.3781046068384" lon="9.226253977066479"><ele>283.75</ele><time>2026-04-28T09:51:05.88Z</time></trkpt><trkpt lat="39.378043240603986" lon="9.2263883332435"><ele>284.0</ele><time>2026-04-28T09:51:06.88Z</time></trkpt><trkpt lat="39.37800442283106" lon="9.22652308022156"><ele>286.25</ele><time>2026-04-28T09:51:07.88Z</time></trkpt><trkpt lat="39.37798356721664" lon="9.22666670530081"><ele>288.5</ele><time>2026-04-28T09:51:08.88Z</time></trkpt><trkpt lat="39.377967410431864" lon="9.226836439860877"><ele>290.75</ele><time>2026-04-28T09:51:09.88Z</time></trkpt><trkpt lat="39.377964489932786" lon="9.22702252406922"><ele>293.0</ele><time>2026-04-28T09:51:10.88Z</time></trkpt><trkpt lat="39.37794977121955" lon="9.227224151964212"><ele>293.6666666666667</ele><time>2026-04-28T09:51:11.88Z</time></trkpt><trkpt lat="39.37792235309504" lon="9.227436162957556"><ele>294.3333333333333</ele><time>2026-04-28T09:51:12.88Z</time></trkpt><trkpt lat="39.37786969184362" lon="9.227634083832445"><ele>295.0</ele><time>2026-04-28T09:51:13.88Z</time></trkpt><trkpt lat="39.37781507778907" lon="9.22784246214591"><ele>295.0</ele><time>2026-04-28T09:51:14.88Z</time></trkpt><trkpt lat="39.377760595866704" lon="9.228055136453609"><ele>295.0</ele><time>2026-04-28T09:51:15.88Z</time></trkpt><trkpt lat="39.37771372257229" lon="9.228267002823845"><ele>295.0</ele><time>2026-04-28T09:51:16.88Z</time></trkpt><trkpt lat="39.37767245446032" lon="9.228473248708184"><ele>295.0</ele><time>2026-04-28T09:51:17.88Z</time></trkpt><trkpt lat="39.377636837410876" lon="9.228677881979024"><ele>295.0</ele><time>2026-04-28T09:51:18.88Z</time></trkpt><trkpt lat="39.377607211091" lon="9.228878371800532"><ele>295.0</ele><time>2026-04-28T09:51:19.88Z</time></trkpt><trkpt lat="39.377565938602785" lon="9.229075635767574"><ele>294.3333333333333</ele><time>2026-04-28T09:51:20.88Z</time></trkpt><trkpt lat="39.377514424623065" lon="9.229268412109784"><ele>293.6666666666667</ele><time>2026-04-28T09:51:21.88Z</time></trkpt><trkpt lat="39.37744756026006" lon="9.229453141602244"><ele>293.0</ele><time>2026-04-28T09:51:22.88Z</time></trkpt><trkpt lat="39.37737771579921" lon="9.229636976213978"><ele>293.33333333333337</ele><time>2026-04-28T09:51:23.88Z</time></trkpt><trkpt lat="39.37729478071782" lon="9.22981939363662"><ele>293.6666666666667</ele><time>2026-04-28T09:51:24.88Z</time></trkpt><trkpt lat="39.37720424421118" lon="9.230003673079679"><ele>294.0</ele><time>2026-04-28T09:51:25.88Z</time></trkpt><trkpt lat="39.377109966555686" lon="9.230188177865633"><ele>295.6666666666667</ele><time>2026-04-28T09:51:26.88Z</time></trkpt><trkpt lat="39.37701648777495" lon="9.230376079569726"><ele>297.33333333333337</ele><time>2026-04-28T09:51:27.88Z</time></trkpt><trkpt lat="39.37692567375675" lon="9.230556687457208"><ele>299.0</ele><time>2026-04-28T09:51:28.88Z</time></trkpt><trkpt lat="39.37683316839332" lon="9.230744308999286"><ele>299.0</ele><time>2026-04-28T09:51:29.88Z</time></trkpt><trkpt lat="39.37674890618093" lon="9.230924624108034"><ele>299.0</ele><time>2026-04-28T09:51:30.88Z</time></trkpt><trkpt lat="39.376673726369376" lon="9.231103701096885"><ele>299.0</ele><time>2026-04-28T09:51:31.88Z</time></trkpt><trkpt lat="39.37658504309424" lon="9.231278430350182"><ele>299.0</ele><time>2026-04-28T09:51:32.88Z</time></trkpt><trkpt lat="39.37650960479735" lon="9.231468882485034"><ele>299.0</ele><time>2026-04-28T09:51:33.88Z</time></trkpt><trkpt lat="39.37644036428811" lon="9.231667810754896"><ele>299.0</ele><time>2026-04-28T09:51:34.88Z</time></trkpt><trkpt lat="39.3763714993824" lon="9.231879291808799"><ele>301.6666666666667</ele><time>2026-04-28T09:51:35.881Z</time></trkpt><trkpt lat="39.376306036583784" lon="9.232080658703735"><ele>304.3333333333333</ele><time>2026-04-28T09:51:36.881Z</time></trkpt><trkpt lat="39.37624444501786" lon="9.23227011739998"><ele>307.0</ele><time>2026-04-28T09:51:37.881Z</time></trkpt><trkpt lat="39.37619429532711" lon="9.232425213461212"><ele>307.0</ele><time>2026-04-28T09:51:38.881Z</time></trkpt><trkpt lat="39.37615626159011" lon="9.232574096667497"><ele>307.0</ele><time>2026-04-28T09:51:39.881Z</time></trkpt><trkpt lat="39.37608016755676" lon="9.232687233151548"><ele>307.0</ele><time>2026-04-28T09:51:40.881Z</time></trkpt><trkpt lat="39.375993255588185" lon="9.232775681274386"><ele>307.0</ele><time>2026-04-28T09:51:41.881Z</time></trkpt><trkpt lat="39.375878615172105" lon="9.232861888433902"><ele>307.0</ele><time>2026-04-28T09:51:42.881Z</time></trkpt><trkpt lat="39.37573594177227" lon="9.232926911611838"><ele>307.0</ele><time>2026-04-28T09:51:43.881Z</time></trkpt><trkpt lat="39.375583631762744" lon="9.233019612526473"><ele>307.0</ele><time>2026-04-28T09:51:44.881Z</time></trkpt><trkpt lat="39.37544952389965" lon="9.23311917985511"><ele>307.66666666666663</ele><time>2026-04-28T09:51:45.881Z</time></trkpt><trkpt lat="39.375298737009444" lon="9.23319820064254"><ele>308.3333333333333</ele><time>2026-04-28T09:51:46.881Z</time></trkpt><trkpt lat="39.375147084102885" lon="9.233281552940841"><ele>309.0</ele><time>2026-04-28T09:51:47.881Z</time></trkpt><trkpt lat="39.374995076547776" lon="9.2333896360829"><ele>309.0</ele><time>2026-04-28T09:51:48.881Z</time></trkpt><trkpt lat="39.374839620528306" lon="9.233485061567189"><ele>309.0</ele><time>2026-04-28T09:51:49.881Z</time></trkpt><trkpt lat="39.374685914259636" lon="9.23357610144718"><ele>309.0</ele><time>2026-04-28T09:51:50.881Z</time></trkpt><trkpt lat="39.37452270819636" lon="9.233679176844207"><ele>313.6666666666667</ele><time>2026-04-28T09:51:51.881Z</time></trkpt><trkpt lat="39.374363115263684" lon="9.23377979421317"><ele>318.33333333333337</ele><time>2026-04-28T09:51:52.881Z</time></trkpt><trkpt lat="39.3741933384891" lon="9.23388125873835"><ele>323.0</ele><time>2026-04-28T09:51:53.881Z</time></trkpt><trkpt lat="39.37402026566448" lon="9.233971689616341"><ele>324.0</ele><time>2026-04-28T09:51:54.881Z</time></trkpt><trkpt lat="39.373839000152095" lon="9.234060427545497"><ele>325.0</ele><time>2026-04-28T09:51:55.881Z</time></trkpt><trkpt lat="39.37365600271373" lon="9.234141238557166"><ele>326.0</ele><time>2026-04-28T09:51:56.881Z</time></trkpt><trkpt lat="39.373483471018616" lon="9.234226458702274"><ele>326.0</ele><time>2026-04-28T09:51:57.881Z</time></trkpt><trkpt lat="39.37330560180113" lon="9.234314950176818"><ele>326.0</ele><time>2026-04-28T09:51:58.881Z</time></trkpt><trkpt lat="39.37313329803198" lon="9.234403893328855"><ele>326.0</ele><time>2026-04-28T09:51:59.881Z</time></trkpt><trkpt lat="39.3729655768302" lon="9.23449157803768"><ele>329.6666666666667</ele><time>2026-04-28T09:52:00.881Z</time></trkpt><trkpt lat="39.372817794910844" lon="9.234556402087227"><ele>333.3333333333333</ele><time>2026-04-28T09:52:01.881Z</time></trkpt><trkpt lat="39.372649225331756" lon="9.234606770429565"><ele>337.0</ele><time>2026-04-28T09:52:02.881Z</time></trkpt><trkpt lat="39.37247278610768" lon="9.23465348512575"><ele>337.0</ele><time>2026-04-28T09:52:03.881Z</time></trkpt><trkpt lat="39.3722977039372" lon="9.234677558532447"><ele>337.0</ele><time>2026-04-28T09:52:04.881Z</time></trkpt><trkpt lat="39.37212358090448" lon="9.23470507409573"><ele>337.0</ele><time>2026-04-28T09:52:05.881Z</time></trkpt><trkpt lat="39.37195770530609" lon="9.234738003571358"><ele>335.66666666666663</ele><time>2026-04-28T09:52:06.881Z</time></trkpt><trkpt lat="39.371785998755406" lon="9.23478247866008"><ele>334.3333333333333</ele><time>2026-04-28T09:52:07.881Z</time></trkpt><trkpt lat="39.37160445633789" lon="9.234839755429784"><ele>333.0</ele><time>2026-04-28T09:52:08.881Z</time></trkpt><trkpt lat="39.37144680197199" lon="9.234881099345618"><ele>336.6666666666667</ele><time>2026-04-28T09:52:09.881Z</time></trkpt><trkpt lat="39.3712939809802" lon="9.234927563898971"><ele>340.33333333333337</ele><time>2026-04-28T09:52:10.881Z</time></trkpt><trkpt lat="39.371107124524706" lon="9.23493643013744"><ele>344.0</ele><time>2026-04-28T09:52:11.881Z</time></trkpt><trkpt lat="39.37092752388578" lon="9.234952557212736"><ele>344.0</ele><time>2026-04-28T09:52:12.881Z</time></trkpt><trkpt lat="39.370749974130995" lon="9.234960751388162"><ele>344.0</ele><time>2026-04-28T09:52:13.881Z</time></trkpt><trkpt lat="39.370572123520205" lon="9.234986098765296"><ele>344.0</ele><time>2026-04-28T09:52:14.881Z</time></trkpt><trkpt lat="39.37040324676804" lon="9.235004270185854"><ele>346.6666666666667</ele><time>2026-04-28T09:52:15.881Z</time></trkpt><trkpt lat="39.37023021750128" lon="9.235012953646281"><ele>349.3333333333333</ele><time>2026-04-28T09:52:16.881Z</time></trkpt><trkpt lat="39.37006637941263" lon="9.235084231177954"><ele>352.0</ele><time>2026-04-28T09:52:17.881Z</time></trkpt><trkpt lat="39.369899407010855" lon="9.235133386408892"><ele>352.0</ele><time>2026-04-28T09:52:18.881Z</time></trkpt><trkpt lat="39.36972735377584" lon="9.235175480476013"><ele>352.0</ele><time>2026-04-28T09:52:19.881Z</time></trkpt><trkpt lat="39.36955672465717" lon="9.235206965368228"><ele>352.0</ele><time>2026-04-28T09:52:20.881Z</time></trkpt><trkpt lat="39.36940167390363" lon="9.235226506437384"><ele>354.75</ele><time>2026-04-28T09:52:21.881Z</time></trkpt><trkpt lat="39.36925077987941" lon="9.235234177858986"><ele>357.5</ele><time>2026-04-28T09:52:22.881Z</time></trkpt><trkpt lat="39.36913715680497" lon="9.235297182118504"><ele>360.25</ele><time>2026-04-28T09:52:23.881Z</time></trkpt><trkpt lat="39.36902733809219" lon="9.235353167665732"><ele>363.0</ele><time>2026-04-28T09:52:24.881Z</time></trkpt><trkpt lat="39.36891723323219" lon="9.235408177271605"><ele>363.0</ele><time>2026-04-28T09:52:25.881Z</time></trkpt><trkpt lat="39.368802533752145" lon="9.23549374203755"><ele>363.0</ele><time>2026-04-28T09:52:26.881Z</time></trkpt><trkpt lat="39.368683138048496" lon="9.235570035753852"><ele>363.0</ele><time>2026-04-28T09:52:27.881Z</time></trkpt><trkpt lat="39.36855061646073" lon="9.235639179423508"><ele>363.0</ele><time>2026-04-28T09:52:28.881Z</time></trkpt><trkpt lat="39.3684146427063" lon="9.235695407144583"><ele>363.0</ele><time>2026-04-28T09:52:29.881Z</time></trkpt><trkpt lat="39.36828683861661" lon="9.23574245664504"><ele>363.0</ele><time>2026-04-28T09:52:30.881Z</time></trkpt><trkpt lat="39.3681669367555" lon="9.23580765861055"><ele>363.0</ele><time>2026-04-28T09:52:31.881Z</time></trkpt><trkpt lat="39.36805079612479" lon="9.235816135578098"><ele>363.0</ele><time>2026-04-28T09:52:32.881Z</time></trkpt><trkpt lat="39.367946013276914" lon="9.235776985973226"><ele>365.5</ele><time>2026-04-28T09:52:33.881Z</time></trkpt><trkpt lat="39.36784261526022" lon="9.23574217867317"><ele>368.0</ele><time>2026-04-28T09:52:34.881Z</time></trkpt><trkpt lat="39.36775346523188" lon="9.235737081970282"><ele>370.5</ele><time>2026-04-28T09:52:35.881Z</time></trkpt><trkpt lat="39.367684467295945" lon="9.235736946474029"><ele>373.0</ele><time>2026-04-28T09:52:36.881Z</time></trkpt><trkpt lat="39.36761007640156" lon="9.23582606535232"><ele>375.5</ele><time>2026-04-28T09:52:38.881Z</time></trkpt><trkpt lat="39.36754896405884" lon="9.23588097998259"><ele>378.0</ele><time>2026-04-28T09:52:39.881Z</time></trkpt><trkpt lat="39.36748368927985" lon="9.235966772912612"><ele>378.0</ele><time>2026-04-28T09:52:40.881Z</time></trkpt><trkpt lat="39.36741854325299" lon="9.236058870172503"><ele>378.0</ele><time>2026-04-28T09:52:41.881Z</time></trkpt><trkpt lat="39.367336142278546" lon="9.236107970686117"><ele>378.0</ele><time>2026-04-28T09:52:42.881Z</time></trkpt><trkpt lat="39.36725285784383" lon="9.23616175329409"><ele>378.0</ele><time>2026-04-28T09:52:43.881Z</time></trkpt><trkpt lat="39.367148814389786" lon="9.236211306220323"><ele>378.0</ele><time>2026-04-28T09:52:44.882Z</time></trkpt><trkpt lat="39.3670334386718" lon="9.236259769894247"><ele>382.79999999999995</ele><time>2026-04-28T09:52:45.882Z</time></trkpt><trkpt lat="39.36690910819563" lon="9.236294132858482"><ele>387.6</ele><time>2026-04-28T09:52:46.88Z</time></trkpt><trkpt lat="39.36679858402545" lon="9.236307648636162"><ele>392.4</ele><time>2026-04-28T09:52:47.879Z</time></trkpt><trkpt lat="39.366697249028455" lon="9.236332245548478"><ele>397.20000000000005</ele><time>2026-04-28T09:52:48.879Z</time></trkpt><trkpt lat="39.36659809920236" lon="9.236360832703626"><ele>402.0</ele><time>2026-04-28T09:52:49.879Z</time></trkpt><trkpt lat="39.366477918391446" lon="9.23635852327499"><ele>402.0</ele><time>2026-04-28T09:52:50.88Z</time></trkpt><trkpt lat="39.36637270457731" lon="9.236292341532353"><ele>402.0</ele><time>2026-04-28T09:52:51.88Z</time></trkpt><trkpt lat="39.36629165878493" lon="9.236199372694248"><ele>402.0</ele><time>2026-04-28T09:52:52.879Z</time></trkpt><trkpt lat="39.36622422891648" lon="9.236108188537742"><ele>402.0</ele><time>2026-04-28T09:52:53.88Z</time></trkpt><trkpt lat="39.36615180499459" lon="9.236010778529966"><ele>402.0</ele><time>2026-04-28T09:52:54.88Z</time></trkpt><trkpt lat="39.366076593938025" lon="9.235911167676147"><ele>402.8</ele><time>2026-04-28T09:52:55.88Z</time></trkpt><trkpt lat="39.365998325641144" lon="9.23584306322913"><ele>403.6</ele><time>2026-04-28T09:52:56.88Z</time></trkpt><trkpt lat="39.36589345511686" lon="9.235774571151762"><ele>404.40000000000003</ele><time>2026-04-28T09:52:58.88Z</time></trkpt><trkpt lat="39.365820926506856" lon="9.235796746398314"><ele>405.20000000000005</ele><time>2026-04-28T09:52:59.879Z</time></trkpt><trkpt lat="39.365765030609545" lon="9.235884886752473"><ele>406.0</ele><time>2026-04-28T09:53:00.879Z</time></trkpt><trkpt lat="39.36576201084824" lon="9.236003428911767"><ele>406.00000000000006</ele><time>2026-04-28T09:53:01.879Z</time></trkpt><trkpt lat="39.3657654173483" lon="9.236088030095146"><ele>406.0</ele><time>2026-04-28T09:53:02.879Z</time></trkpt><trkpt lat="39.36576774383331" lon="9.236194714411186"><ele>406.0</ele><time>2026-04-28T09:53:03.879Z</time></trkpt><trkpt lat="39.365770737612934" lon="9.236308445895167"><ele>406.0</ele><time>2026-04-28T09:53:04.879Z</time></trkpt><trkpt lat="39.36574812728682" lon="9.236416119313422"><ele>406.00000000000006</ele><time>2026-04-28T09:53:05.879Z</time></trkpt><trkpt lat="39.36569433619692" lon="9.236501873543444"><ele>406.0</ele><time>2026-04-28T09:53:06.879Z</time></trkpt><trkpt lat="39.36560688713179" lon="9.236575673290213"><ele>406.5</ele><time>2026-04-28T09:53:07.879Z</time></trkpt><trkpt lat="39.365485608593" lon="9.236634164573568"><ele>407.0</ele><time>2026-04-28T09:53:08.879Z</time></trkpt><trkpt lat="39.36533894712601" lon="9.236680099947131"><ele>407.5</ele><time>2026-04-28T09:53:09.879Z</time></trkpt><trkpt lat="39.365201808969886" lon="9.236685614544554"><ele>408.0</ele><time>2026-04-28T09:53:10.879Z</time></trkpt><trkpt lat="39.365084299459106" lon="9.236698250772825"><ele>408.0</ele><time>2026-04-28T09:53:12.879Z</time></trkpt><trkpt lat="39.36496638071749" lon="9.236673266973616"><ele>408.0</ele><time>2026-04-28T09:53:13.879Z</time></trkpt><trkpt lat="39.36484604417924" lon="9.236651143013527"><ele>408.0</ele><time>2026-04-28T09:53:14.879Z</time></trkpt><trkpt lat="39.36471737408448" lon="9.236629243587421"><ele>408.0</ele><time>2026-04-28T09:53:15.879Z</time></trkpt><trkpt lat="39.36458154007718" lon="9.236601664744425"><ele>410.0</ele><time>2026-04-28T09:53:16.879Z</time></trkpt><trkpt lat="39.36444602733715" lon="9.236568102017536"><ele>412.0</ele><time>2026-04-28T09:53:17.879Z</time></trkpt><trkpt lat="39.36430834488628" lon="9.23653675501082"><ele>414.0</ele><time>2026-04-28T09:53:18.88Z</time></trkpt><trkpt lat="39.364174983587546" lon="9.23650891366959"><ele>416.0</ele><time>2026-04-28T09:53:19.88Z</time></trkpt><trkpt lat="39.36404809184767" lon="9.23648266281757"><ele>420.6</ele><time>2026-04-28T09:53:20.88Z</time></trkpt><trkpt lat="39.36395439419252" lon="9.236403449117116"><ele>425.20000000000005</ele><time>2026-04-28T09:53:21.88Z</time></trkpt><trkpt lat="39.363882260821654" lon="9.236342923548728"><ele>429.79999999999995</ele><time>2026-04-28T09:53:22.88Z</time></trkpt><trkpt lat="39.363795463141585" lon="9.236262732954232"><ele>434.4</ele><time>2026-04-28T09:53:23.88Z</time></trkpt><trkpt lat="39.36372451713886" lon="9.236212260767179"><ele>439.0</ele><time>2026-04-28T09:53:24.88Z</time></trkpt><trkpt lat="39.36362710441416" lon="9.236238948187689"><ele>437.0</ele><time>2026-04-28T09:53:26.88Z</time></trkpt><trkpt lat="39.36355333715631" lon="9.236361572431825"><ele>435.0</ele><time>2026-04-28T09:53:28.88Z</time></trkpt><trkpt lat="39.36351401861061" lon="9.236471779701844"><ele>433.0</ele><time>2026-04-28T09:53:29.88Z</time></trkpt><trkpt lat="39.363465110985786" lon="9.236580467439596"><ele>431.0</ele><time>2026-04-28T09:53:30.88Z</time></trkpt><trkpt lat="39.363391160113295" lon="9.236659462879487"><ele>429.0</ele><time>2026-04-28T09:53:31.88Z</time></trkpt><trkpt lat="39.363294874886144" lon="9.23668770384322"><ele>429.0</ele><time>2026-04-28T09:53:32.88Z</time></trkpt><trkpt lat="39.363190651966725" lon="9.236676232754034"><ele>429.0</ele><time>2026-04-28T09:53:33.88Z</time></trkpt><trkpt lat="39.36307592775198" lon="9.236658922070385"><ele>429.0</ele><time>2026-04-28T09:53:34.88Z</time></trkpt><trkpt lat="39.36293666594529" lon="9.236646688581473"><ele>429.0</ele><time>2026-04-28T09:53:35.88Z</time></trkpt><trkpt lat="39.36281092874438" lon="9.236638783265457"><ele>431.79999999999995</ele><time>2026-04-28T09:53:36.88Z</time></trkpt><trkpt lat="39.362692909235335" lon="9.236616340961668"><ele>434.59999999999997</ele><time>2026-04-28T09:53:37.88Z</time></trkpt><trkpt lat="39.36258498576031" lon="9.236602697849031"><ele>437.4</ele><time>2026-04-28T09:53:38.88Z</time></trkpt><trkpt lat="39.3625067191739" lon="9.236553452382836"><ele>440.2</ele><time>2026-04-28T09:53:39.88Z</time></trkpt><trkpt lat="39.362438485949234" lon="9.236474769883454"><ele>443.0</ele><time>2026-04-28T09:53:40.88Z</time></trkpt><trkpt lat="39.36237597856436" lon="9.236394392291409"><ele>447.0</ele><time>2026-04-28T09:53:41.88Z</time></trkpt><trkpt lat="39.362306449015215" lon="9.236336206997843"><ele>450.99999999999994</ele><time>2026-04-28T09:53:42.88Z</time></trkpt><trkpt lat="39.362198267114735" lon="9.236356350125158"><ele>454.99999999999994</ele><time>2026-04-28T09:53:44.88Z</time></trkpt><trkpt lat="39.36214905075517" lon="9.236474709157443"><ele>459.0</ele><time>2026-04-28T09:53:46.88Z</time></trkpt><trkpt lat="39.362120183847594" lon="9.236582103682142"><ele>463.0</ele><time>2026-04-28T09:53:47.88Z</time></trkpt><trkpt lat="39.362084147321596" lon="9.236697270362228"><ele>463.0</ele><time>2026-04-28T09:53:48.88Z</time></trkpt><trkpt lat="39.362018536026085" lon="9.236788838560875"><ele>462.99999999999994</ele><time>2026-04-28T09:53:49.88Z</time></trkpt><trkpt lat="39.361921158446606" lon="9.236804653318398"><ele>462.99999999999994</ele><time>2026-04-28T09:53:50.88Z</time></trkpt><trkpt lat="39.36185275330357" lon="9.236886247164868"><ele>463.0</ele><time>2026-04-28T09:53:51.88Z</time></trkpt><trkpt lat="39.361805060561544" lon="9.236966213240333"><ele>463.0</ele><time>2026-04-28T09:53:52.88Z</time></trkpt><trkpt lat="39.36175788989978" lon="9.237057482575652"><ele>463.0</ele><time>2026-04-28T09:53:54.88Z</time></trkpt><trkpt lat="39.36175669099506" lon="9.237159187580154"><ele>462.99999999999994</ele><time>2026-04-28T09:53:55.88Z</time></trkpt><trkpt lat="39.36176118062716" lon="9.23731962256379"><ele>462.99999999999994</ele><time>2026-04-28T09:53:56.88Z</time></trkpt><trkpt lat="39.36176016615219" lon="9.237462351209786"><ele>463.0</ele><time>2026-04-28T09:53:57.88Z</time></trkpt><trkpt lat="39.36173042284483" lon="9.237596315516923"><ele>463.0</ele><time>2026-04-28T09:53:58.88Z</time></trkpt><trkpt lat="39.3616705533764" lon="9.237721633734653"><ele>460.25</ele><time>2026-04-28T09:53:59.88Z</time></trkpt><trkpt lat="39.361582821048486" lon="9.23785113843216"><ele>457.5</ele><time>2026-04-28T09:54:00.88Z</time></trkpt><trkpt lat="39.36150033497211" lon="9.237993588558528"><ele>454.75</ele><time>2026-04-28T09:54:01.88Z</time></trkpt><trkpt lat="39.361410928468054" lon="9.238130171901302"><ele>452.0</ele><time>2026-04-28T09:54:02.88Z</time></trkpt><trkpt lat="39.36132037088635" lon="9.238255956455435"><ele>460.0</ele><time>2026-04-28T09:54:03.88Z</time></trkpt><trkpt lat="39.36122043795467" lon="9.23837968136283"><ele>468.0</ele><time>2026-04-28T09:54:04.88Z</time></trkpt><trkpt lat="39.36111194520513" lon="9.238488825862559"><ele>476.0</ele><time>2026-04-28T09:54:05.88Z</time></trkpt><trkpt lat="39.36102940144138" lon="9.238632179784004"><ele>484.0</ele><time>2026-04-28T09:54:06.88Z</time></trkpt><trkpt lat="39.36092843035687" lon="9.238785796627042"><ele>484.0</ele><time>2026-04-28T09:54:07.88Z</time></trkpt><trkpt lat="39.36084577241425" lon="9.238941693457466"><ele>484.0</ele><time>2026-04-28T09:54:08.88Z</time></trkpt><trkpt lat="39.36076441752549" lon="9.239118616210071"><ele>484.0</ele><time>2026-04-28T09:54:09.88Z</time></trkpt><trkpt lat="39.360665582299525" lon="9.239277350824961"><ele>480.6666666666667</ele><time>2026-04-28T09:54:10.88Z</time></trkpt><trkpt lat="39.36057723499096" lon="9.239452854641696"><ele>477.33333333333337</ele><time>2026-04-28T09:54:11.88Z</time></trkpt><trkpt lat="39.3604880133895" lon="9.23962405830548"><ele>474.0</ele><time>2026-04-28T09:54:12.88Z</time></trkpt><trkpt lat="39.3603916785352" lon="9.239796028528744"><ele>482.33333333333337</ele><time>2026-04-28T09:54:13.88Z</time></trkpt><trkpt lat="39.36029377243309" lon="9.239964738061106"><ele>490.6666666666667</ele><time>2026-04-28T09:54:14.88Z</time></trkpt><trkpt lat="39.36019644454802" lon="9.240131819909834"><ele>499.0</ele><time>2026-04-28T09:54:15.88Z</time></trkpt><trkpt lat="39.36010222895426" lon="9.240303746522192"><ele>499.0</ele><time>2026-04-28T09:54:16.88Z</time></trkpt><trkpt lat="39.36002614801195" lon="9.24049887010858"><ele>499.0</ele><time>2026-04-28T09:54:17.88Z</time></trkpt><trkpt lat="39.35992374241814" lon="9.240665722347549"><ele>499.0</ele><time>2026-04-28T09:54:18.88Z</time></trkpt><trkpt lat="39.35983556381028" lon="9.240830838534608"><ele>497.0</ele><time>2026-04-28T09:54:19.88Z</time></trkpt><trkpt lat="39.35972512735336" lon="9.240974866895483"><ele>495.0</ele><time>2026-04-28T09:54:20.88Z</time></trkpt><trkpt lat="39.3596321101553" lon="9.241121296474274"><ele>493.0</ele><time>2026-04-28T09:54:21.88Z</time></trkpt><trkpt lat="39.359530726482205" lon="9.24125482126271"><ele>491.0</ele><time>2026-04-28T09:54:22.88Z</time></trkpt><trkpt lat="39.35942149132759" lon="9.241391422888912"><ele>496.3333333333333</ele><time>2026-04-28T09:54:23.88Z</time></trkpt><trkpt lat="39.35930744326106" lon="9.24155323520779"><ele>501.66666666666663</ele><time>2026-04-28T09:54:24.88Z</time></trkpt><trkpt lat="39.35919801046816" lon="9.241701447589865"><ele>507.0</ele><time>2026-04-28T09:54:25.88Z</time></trkpt><trkpt lat="39.35908444189672" lon="9.241832223477466"><ele>507.0</ele><time>2026-04-28T09:54:26.88Z</time></trkpt><trkpt lat="39.35897877307336" lon="9.241960516885388"><ele>507.0</ele><time>2026-04-28T09:54:27.88Z</time></trkpt><trkpt lat="39.35888079084312" lon="9.242098823672952"><ele>507.0</ele><time>2026-04-28T09:54:28.88Z</time></trkpt><trkpt lat="39.358797895876506" lon="9.242237053612332"><ele>507.0</ele><time>2026-04-28T09:54:29.881Z</time></trkpt><trkpt lat="39.358706634204864" lon="9.242350776004635"><ele>509.40000000000003</ele><time>2026-04-28T09:54:30.881Z</time></trkpt><trkpt lat="39.35862261654305" lon="9.242422589050944"><ele>511.80000000000007</ele><time>2026-04-28T09:54:31.881Z</time></trkpt><trkpt lat="39.35850575501295" lon="9.242473468825189"><ele>514.2</ele><time>2026-04-28T09:54:32.881Z</time></trkpt><trkpt lat="39.35842714947255" lon="9.24258226453933"><ele>516.6</ele><time>2026-04-28T09:54:33.881Z</time></trkpt><trkpt lat="39.35836554306675" lon="9.242671630354813"><ele>519.0</ele><time>2026-04-28T09:54:34.881Z</time></trkpt><trkpt lat="39.35830819826272" lon="9.242739487699309"><ele>519.0</ele><time>2026-04-28T09:54:35.881Z</time></trkpt><trkpt lat="39.358240615381845" lon="9.242782289529883"><ele>519.0</ele><time>2026-04-28T09:54:36.881Z</time></trkpt><trkpt lat="39.358158429697916" lon="9.242834236659034"><ele>519.0</ele><time>2026-04-28T09:54:37.881Z</time></trkpt><trkpt lat="39.358073348158975" lon="9.242883656144139"><ele>519.0</ele><time>2026-04-28T09:54:38.881Z</time></trkpt><trkpt lat="39.35796336211581" lon="9.242941669542166"><ele>519.0</ele><time>2026-04-28T09:54:39.881Z</time></trkpt><trkpt lat="39.35783187686239" lon="9.243001565087301"><ele>523.0</ele><time>2026-04-28T09:54:40.881Z</time></trkpt><trkpt lat="39.357716051721944" lon="9.243056036685395"><ele>527.0</ele><time>2026-04-28T09:54:41.881Z</time></trkpt><trkpt lat="39.35760136007464" lon="9.243112298973342"><ele>531.0</ele><time>2026-04-28T09:54:42.881Z</time></trkpt><trkpt lat="39.357494163256426" lon="9.243188326697986"><ele>535.0</ele><time>2026-04-28T09:54:43.881Z</time></trkpt><trkpt lat="39.35738241887575" lon="9.243240823228238"><ele>535.0</ele><time>2026-04-28T09:54:44.881Z</time></trkpt><trkpt lat="39.357282298718346" lon="9.243304825683445"><ele>535.0</ele><time>2026-04-28T09:54:45.881Z</time></trkpt><trkpt lat="39.35721561798366" lon="9.243336714516873"><ele>535.0</ele><time>2026-04-28T09:54:46.881Z</time></trkpt><trkpt lat="39.35712180272436" lon="9.243442007112387"><ele>535.0</ele><time>2026-04-28T09:58:48.882Z</time></trkpt><trkpt lat="39.35703801036032" lon="9.243510777178336"><ele>535.0</ele><time>2026-04-28T09:58:51.882Z</time></trkpt><trkpt lat="39.35696276821528" lon="9.24353608255096"><ele>537.5</ele><time>2026-04-28T09:58:52.882Z</time></trkpt><trkpt lat="39.35690074032082" lon="9.243593654751173"><ele>540.0</ele><time>2026-04-28T09:58:53.882Z</time></trkpt><trkpt lat="39.356802441801555" lon="9.243672300374806"><ele>542.5</ele><time>2026-04-28T09:58:55.882Z</time></trkpt><trkpt lat="39.35674308984756" lon="9.243721663928127"><ele>545.0</ele><time>2026-04-28T09:58:56.882Z</time></trkpt><trkpt lat="39.35666871534902" lon="9.243783770369324"><ele>547.5</ele><time>2026-04-28T09:58:57.882Z</time></trkpt><trkpt lat="39.35659841752423" lon="9.243842463082874"><ele>550.0</ele><time>2026-04-28T09:58:58.882Z</time></trkpt><trkpt lat="39.35652671390617" lon="9.24390232945666"><ele>550.2</ele><time>2026-04-28T09:58:59.882Z</time></trkpt><trkpt lat="39.35643928958538" lon="9.243975321353966"><ele>550.4</ele><time>2026-04-28T09:59:00.882Z</time></trkpt><trkpt lat="39.356356644573445" lon="9.244044322800592"><ele>550.6</ele><time>2026-04-28T09:59:01.882Z</time></trkpt><trkpt lat="39.356264847984654" lon="9.244120965302812"><ele>550.8</ele><time>2026-04-28T09:59:02.882Z</time></trkpt><trkpt lat="39.3561663573782" lon="9.244202915940512"><ele>551.0</ele><time>2026-04-28T09:59:03.882Z</time></trkpt><trkpt lat="39.3560854201752" lon="9.244267072029958"><ele>553.75</ele><time>2026-04-28T09:59:04.881Z</time></trkpt><trkpt lat="39.35598845914209" lon="9.244343929667695"><ele>556.5</ele><time>2026-04-28T09:59:05.881Z</time></trkpt><trkpt lat="39.3558660849359" lon="9.244416566205258"><ele>559.25</ele><time>2026-04-28T09:59:06.881Z</time></trkpt><trkpt lat="39.35576954952832" lon="9.244522890427866"><ele>562.0</ele><time>2026-04-28T09:59:07.881Z</time></trkpt><trkpt lat="39.35569086926104" lon="9.244583092052338"><ele>562.0</ele><time>2026-04-28T09:59:08.881Z</time></trkpt><trkpt lat="39.35559750238859" lon="9.24466871281952"><ele>562.0</ele><time>2026-04-28T09:59:09.881Z</time></trkpt><trkpt lat="39.35551051981847" lon="9.244741320762984"><ele>562.0</ele><time>2026-04-28T09:59:10.881Z</time></trkpt><trkpt lat="39.35545312595702" lon="9.244782332112477"><ele>562.0</ele><time>2026-04-28T09:59:11.88Z</time></trkpt><trkpt lat="39.35541774318556" lon="9.24492414495575"><ele>562.0</ele><time>2026-04-28T09:59:13.881Z</time></trkpt><trkpt lat="39.35545628797263" lon="9.24503934478025"><ele>566.8000000000001</ele><time>2026-04-28T09:59:15.88Z</time></trkpt><trkpt lat="39.35541281860964" lon="9.24512409024546"><ele>571.6</ele><time>2026-04-28T09:59:17.881Z</time></trkpt><trkpt lat="39.355319909451865" lon="9.245088977254312"><ele>576.4000000000001</ele><time>2026-04-28T09:59:19.881Z</time></trkpt><trkpt lat="39.35519872260132" lon="9.245055585431693"><ele>581.2</ele><time>2026-04-28T09:59:21.881Z</time></trkpt><trkpt lat="39.3551331820364" lon="9.245002094915758"><ele>586.0</ele><time>2026-04-28T09:59:22.881Z</time></trkpt><trkpt lat="39.355086098853796" lon="9.24490599342989"><ele>586.0</ele><time>2026-04-28T09:59:24.881Z</time></trkpt><trkpt lat="39.35508962327356" lon="9.24481894993753"><ele>586.0</ele><time>2026-04-28T09:59:25.881Z</time></trkpt><trkpt lat="39.35508630794304" lon="9.244721181161493"><ele>586.0</ele><time>2026-04-28T09:59:26.881Z</time></trkpt><trkpt lat="39.35508987930719" lon="9.24460422089237"><ele>586.0</ele><time>2026-04-28T09:59:27.881Z</time></trkpt><trkpt lat="39.355084995331985" lon="9.244481761116822"><ele>586.0</ele><time>2026-04-28T09:59:28.881Z</time></trkpt><trkpt lat="39.35509256045394" lon="9.244373330196128"><ele>586.0</ele><time>2026-04-28T09:59:29.881Z</time></trkpt><trkpt lat="39.35510602935604" lon="9.244269990301513"><ele>584.8</ele><time>2026-04-28T09:59:30.881Z</time></trkpt><trkpt lat="39.35507464095177" lon="9.244164488775088"><ele>583.6</ele><time>2026-04-28T09:59:31.881Z</time></trkpt><trkpt lat="39.35499464782723" lon="9.24409462356046"><ele>582.4</ele><time>2026-04-28T09:59:33.881Z</time></trkpt><trkpt lat="39.3548781226504" lon="9.24416082087898"><ele>581.2</ele><time>2026-04-28T09:59:35.881Z</time></trkpt><trkpt lat="39.35482255388916" lon="9.244235989258392"><ele>580.0</ele><time>2026-04-28T09:59:36.881Z</time></trkpt><trkpt lat="39.35477093615413" lon="9.244332402096543"><ele>580.0</ele><time>2026-04-28T09:59:37.881Z</time></trkpt><trkpt lat="39.354722988844436" lon="9.244441694454608"><ele>580.0</ele><time>2026-04-28T09:59:38.881Z</time></trkpt><trkpt lat="39.35467126492422" lon="9.244561661069648"><ele>580.0</ele><time>2026-04-28T09:59:39.881Z</time></trkpt><trkpt lat="39.35461949008689" lon="9.244671457772002"><ele>580.0</ele><time>2026-04-28T09:59:40.881Z</time></trkpt><trkpt lat="39.35457834819478" lon="9.244797635184929"><ele>580.0</ele><time>2026-04-28T09:59:41.881Z</time></trkpt><trkpt lat="39.35452336620206" lon="9.244919493275052"><ele>583.75</ele><time>2026-04-28T09:59:42.881Z</time></trkpt><trkpt lat="39.35445093872123" lon="9.245035868335044"><ele>587.5</ele><time>2026-04-28T09:59:43.881Z</time></trkpt><trkpt lat="39.354360972393046" lon="9.245139273345249"><ele>591.25</ele><time>2026-04-28T09:59:44.881Z</time></trkpt><trkpt lat="39.354263890998745" lon="9.245231875915215"><ele>595.0</ele><time>2026-04-28T09:59:45.881Z</time></trkpt><trkpt lat="39.35417046612002" lon="9.245325559447286"><ele>595.0</ele><time>2026-04-28T09:59:46.881Z</time></trkpt><trkpt lat="39.3540922507767" lon="9.245418137546084"><ele>595.0</ele><time>2026-04-28T09:59:47.881Z</time></trkpt><trkpt lat="39.35402582923152" lon="9.24549983095046"><ele>595.0</ele><time>2026-04-28T09:59:48.881Z</time></trkpt><trkpt lat="39.35397258494913" lon="9.245573573303588"><ele>595.0</ele><time>2026-04-28T09:59:49.881Z</time></trkpt><trkpt lat="39.353931269195996" lon="9.245679681244312"><ele>595.0</ele><time>2026-04-28T09:59:51.881Z</time></trkpt><trkpt lat="39.35398330411834" lon="9.245771042661467"><ele>596.6666666666667</ele><time>2026-04-28T09:59:54.881Z</time></trkpt><trkpt lat="39.35404550605388" lon="9.245788984859407"><ele>598.3333333333334</ele><time>2026-04-28T09:59:56.881Z</time></trkpt><trkpt lat="39.354160678514425" lon="9.24576189443645"><ele>600.0</ele><time>2026-04-28T09:59:58.881Z</time></trkpt><trkpt lat="39.354239202584665" lon="9.2457747818772"><ele>601.6666666666666</ele><time>2026-04-28T10:00:00.881Z</time></trkpt><trkpt lat="39.35435602282912" lon="9.24580898230082"><ele>603.3333333333333</ele><time>2026-04-28T10:00:02.881Z</time></trkpt><trkpt lat="39.354416907204744" lon="9.245839757763688"><ele>605.0</ele><time>2026-04-28T10:00:03.881Z</time></trkpt><trkpt lat="39.35452639019679" lon="9.24588693081881"><ele>605.0</ele><time>2026-04-28T10:00:05.881Z</time></trkpt><trkpt lat="39.35459045544083" lon="9.245904607982164"><ele>605.0</ele><time>2026-04-28T10:00:06.881Z</time></trkpt><trkpt lat="39.3546977055963" lon="9.245993697855159"><ele>605.0</ele><time>2026-04-28T10:00:08.881Z</time></trkpt><trkpt lat="39.35479666888577" lon="9.246077560875362"><ele>605.0</ele><time>2026-04-28T10:00:10.881Z</time></trkpt><trkpt lat="39.35487277715881" lon="9.246198749829075"><ele>605.0</ele><time>2026-04-28T10:00:12.881Z</time></trkpt><trkpt lat="39.35496666524921" lon="9.246319499095002"><ele>604.3333333333333</ele><time>2026-04-28T10:00:14.882Z</time></trkpt><trkpt lat="39.3550465398833" lon="9.246374777865414"><ele>603.6666666666666</ele><time>2026-04-28T10:00:15.882Z</time></trkpt><trkpt lat="39.35513043343268" lon="9.246404283642985"><ele>603.0</ele><time>2026-04-28T10:00:16.882Z</time></trkpt><trkpt lat="39.35519978181933" lon="9.246427885948039"><ele>602.3333333333334</ele><time>2026-04-28T10:00:17.882Z</time></trkpt><trkpt lat="39.35527976641731" lon="9.246447440401626"><ele>601.6666666666667</ele><time>2026-04-28T10:00:18.882Z</time></trkpt><trkpt lat="39.35536710033809" lon="9.246466317324648"><ele>601.0</ele><time>2026-04-28T10:00:19.882Z</time></trkpt><trkpt lat="39.35545698338482" lon="9.246479852418508"><ele>603.3333333333334</ele><time>2026-04-28T10:00:20.882Z</time></trkpt><trkpt lat="39.35554212102802" lon="9.246468597041973"><ele>605.6666666666667</ele><time>2026-04-28T10:00:21.882Z</time></trkpt><trkpt lat="39.3556350171994" lon="9.246479482210269"><ele>608.0</ele><time>2026-04-28T10:00:22.882Z</time></trkpt><trkpt lat="39.355708817548454" lon="9.246475346999906"><ele>610.3333333333334</ele><time>2026-04-28T10:00:23.882Z</time></trkpt><trkpt lat="39.35577692021559" lon="9.24647751059869"><ele>612.6666666666666</ele><time>2026-04-28T10:00:24.882Z</time></trkpt><trkpt lat="39.355852587534066" lon="9.246502105785435"><ele>615.0</ele><time>2026-04-28T10:00:25.882Z</time></trkpt><trkpt lat="39.35593313676646" lon="9.246511555894006"><ele>615.0</ele><time>2026-04-28T10:00:26.882Z</time></trkpt><trkpt lat="39.356021361422414" lon="9.246505746953328"><ele>615.0</ele><time>2026-04-28T10:00:27.882Z</time></trkpt><trkpt lat="39.35610156434597" lon="9.24653677291709"><ele>615.0</ele><time>2026-04-28T10:00:28.882Z</time></trkpt><trkpt lat="39.35619022913656" lon="9.246557669497815"><ele>615.0</ele><time>2026-04-28T10:00:29.882Z</time></trkpt><trkpt lat="39.356283356064516" lon="9.246589062061997"><ele>615.0</ele><time>2026-04-28T10:00:30.882Z</time></trkpt><trkpt lat="39.35637185539359" lon="9.24661451868472"><ele>615.0</ele><time>2026-04-28T10:00:31.882Z</time></trkpt><trkpt lat="39.35644753952367" lon="9.24666248143116"><ele>614.3333333333334</ele><time>2026-04-28T10:00:32.882Z</time></trkpt><trkpt lat="39.35650785429724" lon="9.246692966431189"><ele>613.6666666666666</ele><time>2026-04-28T10:00:33.882Z</time></trkpt><trkpt lat="39.35660123469802" lon="9.246799038763383"><ele>613.0</ele><time>2026-04-28T10:00:35.882Z</time></trkpt><trkpt lat="39.356640459235116" lon="9.246883357564151"><ele>612.3333333333333</ele><time>2026-04-28T10:00:36.882Z</time></trkpt><trkpt lat="39.35667500984025" lon="9.246982496412382"><ele>611.6666666666666</ele><time>2026-04-28T10:00:37.882Z</time></trkpt><trkpt lat="39.35671372478573" lon="9.247089980346546"><ele>611.0</ele><time>2026-04-28T10:00:38.882Z</time></trkpt><trkpt lat="39.35675453564512" lon="9.24719554213471"><ele>611.0</ele><time>2026-04-28T10:00:39.882Z</time></trkpt><trkpt lat="39.356800867258194" lon="9.247287344366823"><ele>611.0</ele><time>2026-04-28T10:00:40.882Z</time></trkpt><trkpt lat="39.35684208835757" lon="9.247377009130162"><ele>611.0</ele><time>2026-04-28T10:00:41.882Z</time></trkpt><trkpt lat="39.356894824813516" lon="9.247450566551139"><ele>611.0</ele><time>2026-04-28T10:00:42.882Z</time></trkpt><trkpt lat="39.35696199627464" lon="9.247513407019595"><ele>611.0</ele><time>2026-04-28T10:00:43.882Z</time></trkpt><trkpt lat="39.35703720978298" lon="9.247560411002723"><ele>611.0</ele><time>2026-04-28T10:00:44.882Z</time></trkpt><trkpt lat="39.35710478693095" lon="9.247605411675588"><ele>611.0</ele><time>2026-04-28T10:00:45.882Z</time></trkpt><trkpt lat="39.35720198954711" lon="9.247631968112001"><ele>611.0</ele><time>2026-04-28T10:00:46.882Z</time></trkpt><trkpt lat="39.357286064818695" lon="9.247641709733399"><ele>611.0</ele><time>2026-04-28T10:00:47.882Z</time></trkpt><trkpt lat="39.357366961510586" lon="9.24766726137588"><ele>611.0</ele><time>2026-04-28T10:00:48.882Z</time></trkpt><trkpt lat="39.35744783088927" lon="9.247715616181916"><ele>611.0</ele><time>2026-04-28T10:00:49.882Z</time></trkpt><trkpt lat="39.3575139039626" lon="9.247786734411752"><ele>611.0</ele><time>2026-04-28T10:00:50.882Z</time></trkpt><trkpt lat="39.357579746935166" lon="9.247873940990962"><ele>611.0</ele><time>2026-04-28T10:00:51.882Z</time></trkpt><trkpt lat="39.3576389448193" lon="9.247970525437724"><ele>611.0</ele><time>2026-04-28T10:00:52.882Z</time></trkpt><trkpt lat="39.35769517337356" lon="9.24806030513242"><ele>611.0</ele><time>2026-04-28T10:00:53.882Z</time></trkpt><trkpt lat="39.357750677151095" lon="9.248151056501866"><ele>611.0</ele><time>2026-04-28T10:00:54.882Z</time></trkpt><trkpt lat="39.357789918561366" lon="9.24825940019492"><ele>611.0</ele><time>2026-04-28T10:00:55.882Z</time></trkpt><trkpt lat="39.3578277419799" lon="9.248372683947649"><ele>611.0</ele><time>2026-04-28T10:00:56.882Z</time></trkpt><trkpt lat="39.35785398749318" lon="9.248494980569307"><ele>611.0</ele><time>2026-04-28T10:00:57.882Z</time></trkpt><trkpt lat="39.35786963334339" lon="9.248621855406661"><ele>611.0</ele><time>2026-04-28T10:00:58.882Z</time></trkpt><trkpt lat="39.35788074147959" lon="9.248744716239145"><ele>611.0</ele><time>2026-04-28T10:00:59.882Z</time></trkpt><trkpt lat="39.35788445401406" lon="9.248872667397396"><ele>611.0</ele><time>2026-04-28T10:01:00.882Z</time></trkpt><trkpt lat="39.35788878737297" lon="9.24899272897253"><ele>611.4</ele><time>2026-04-28T10:01:01.882Z</time></trkpt><trkpt lat="39.35789989395042" lon="9.249098314937479"><ele>611.8</ele><time>2026-04-28T10:01:02.882Z</time></trkpt><trkpt lat="39.35791013071455" lon="9.249200014782692"><ele>612.1999999999999</ele><time>2026-04-28T10:01:03.882Z</time></trkpt><trkpt lat="39.357943895258494" lon="9.249327441190454"><ele>612.6</ele><time>2026-04-28T10:01:05.882Z</time></trkpt><trkpt lat="39.35803476109388" lon="9.249422398765585"><ele>613.0</ele><time>2026-04-28T10:01:07.882Z</time></trkpt><trkpt lat="39.35809793594563" lon="9.2494553479873"><ele>614.5</ele><time>2026-04-28T10:01:08.882Z</time></trkpt><trkpt lat="39.35816232662112" lon="9.249488312738828"><ele>616.0</ele><time>2026-04-28T10:01:09.882Z</time></trkpt><trkpt lat="39.35822920615536" lon="9.249531413508011"><ele>617.5</ele><time>2026-04-28T10:01:10.881Z</time></trkpt><trkpt lat="39.35833531930724" lon="9.249564181579228"><ele>619.0</ele><time>2026-04-28T10:01:12.881Z</time></trkpt><trkpt lat="39.358426276078355" lon="9.249557860843444"><ele>620.5</ele><time>2026-04-28T10:01:14.881Z</time></trkpt><trkpt lat="39.358493650034724" lon="9.249524597764722"><ele>622.0</ele><time>2026-04-28T10:01:16.882Z</time></trkpt><trkpt lat="39.35855018427543" lon="9.249480610836237"><ele>622.0</ele><time>2026-04-28T10:01:59.882Z</time></trkpt><trkpt lat="39.35861136364029" lon="9.249444143399637"><ele>622.0</ele><time>2026-04-28T10:02:02.882Z</time></trkpt><trkpt lat="39.358712643158206" lon="9.24938932959405"><ele>622.0</ele><time>2026-04-28T10:02:05.882Z</time></trkpt><trkpt lat="39.358803423346735" lon="9.249364610131282"><ele>622.0</ele><time>2026-04-28T10:02:07.882Z</time></trkpt><trkpt lat="39.35889580895099" lon="9.249318863977138"><ele>622.0</ele><time>2026-04-28T10:02:09.882Z</time></trkpt><trkpt lat="39.358992614475696" lon="9.249275155656662"><ele>619.6</ele><time>2026-04-28T10:02:11.882Z</time></trkpt><trkpt lat="39.35910124282313" lon="9.249233864007453"><ele>617.2</ele><time>2026-04-28T10:02:13.882Z</time></trkpt><trkpt lat="39.35922189935475" lon="9.249194425616805"><ele>614.8</ele><time>2026-04-28T10:02:15.882Z</time></trkpt><trkpt lat="39.3592839281319" lon="9.24917398267402"><ele>612.4</ele><time>2026-04-28T10:02:16.882Z</time></trkpt><trkpt lat="39.35935822914903" lon="9.24914660252343"><ele>610.0</ele><time>2026-04-28T10:02:17.882Z</time></trkpt><trkpt lat="39.35943458439096" lon="9.249121170295872"><ele>610.0</ele><time>2026-04-28T10:02:18.882Z</time></trkpt><trkpt lat="39.3595721935925" lon="9.249104286939565"><ele>610.0</ele><time>2026-04-28T10:02:20.882Z</time></trkpt><trkpt lat="39.35964227052512" lon="9.249091182298953"><ele>610.0</ele><time>2026-04-28T10:02:21.882Z</time></trkpt><trkpt lat="39.3597066769851" lon="9.249094163909305"><ele>610.0</ele><time>2026-04-28T10:02:22.882Z</time></trkpt><trkpt lat="39.359781242195716" lon="9.249082008159565"><ele>610.0</ele><time>2026-04-28T10:02:23.882Z</time></trkpt><trkpt lat="39.359844598974924" lon="9.249079818397869"><ele>610.0</ele><time>2026-04-28T10:02:24.882Z</time></trkpt><trkpt lat="39.3599125111272" lon="9.249085871361933"><ele>608.8333333333334</ele><time>2026-04-28T10:02:25.882Z</time></trkpt><trkpt lat="39.360023223401065" lon="9.249090358322778"><ele>607.6666666666667</ele><time>2026-04-28T10:02:27.882Z</time></trkpt><trkpt lat="39.36009208088805" lon="9.249096687760664"><ele>606.5</ele><time>2026-04-28T10:02:29.882Z</time></trkpt><trkpt lat="39.36016643610197" lon="9.249098874687826"><ele>605.3333333333334</ele><time>2026-04-28T10:02:31.882Z</time></trkpt><trkpt lat="39.360266436921286" lon="9.249110818152676"><ele>604.1666666666666</ele><time>2026-04-28T10:02:33.882Z</time></trkpt><trkpt lat="39.36033536198216" lon="9.249111420635721"><ele>603.0</ele><time>2026-04-28T10:02:34.882Z</time></trkpt><trkpt lat="39.36045350423517" lon="9.249121937190692"><ele>605.0</ele><time>2026-04-28T10:02:36.882Z</time></trkpt><trkpt lat="39.360555193322575" lon="9.24913595354462"><ele>607.0</ele><time>2026-04-28T10:02:38.882Z</time></trkpt><trkpt lat="39.360681715469184" lon="9.24915176357002"><ele>609.0</ele><time>2026-04-28T10:02:40.882Z</time></trkpt><trkpt lat="39.3607438821576" lon="9.249173822196255"><ele>611.0</ele><time>2026-04-28T10:02:41.882Z</time></trkpt><trkpt lat="39.36085387255281" lon="9.249262361634251"><ele>613.0</ele><time>2026-04-28T10:02:43.882Z</time></trkpt><trkpt lat="39.36089992525681" lon="9.249321541392371"><ele>613.0</ele><time>2026-04-28T10:02:44.882Z</time></trkpt><trkpt lat="39.36093538708932" lon="9.24939483141944"><ele>613.0</ele><time>2026-04-28T10:02:45.882Z</time></trkpt><trkpt lat="39.36091914676676" lon="9.249549262396117"><ele>613.0</ele><time>2026-04-28T10:02:47.882Z</time></trkpt><trkpt lat="39.36088703892391" lon="9.249694299265013"><ele>613.0</ele><time>2026-04-28T10:02:49.882Z</time></trkpt><trkpt lat="39.360864280278186" lon="9.249855152705786"><ele>613.0</ele><time>2026-04-28T10:02:51.882Z</time></trkpt><trkpt lat="39.360846531614165" lon="9.249998048152442"><ele>613.5714285714286</ele><time>2026-04-28T10:02:53.882Z</time></trkpt><trkpt lat="39.360841153842735" lon="9.250081716914835"><ele>614.1428571428571</ele><time>2026-04-28T10:02:54.882Z</time></trkpt><trkpt lat="39.360839523362195" lon="9.250195245507165"><ele>614.7142857142858</ele><time>2026-04-28T10:02:56.882Z</time></trkpt><trkpt lat="39.3608749446996" lon="9.25026547770932"><ele>615.2857142857142</ele><time>2026-04-28T10:02:57.882Z</time></trkpt><trkpt lat="39.360922133718404" lon="9.250329768168799"><ele>615.8571428571428</ele><time>2026-04-28T10:02:58.882Z</time></trkpt><trkpt lat="39.36095925816365" lon="9.2504021317469"><ele>616.4285714285714</ele><time>2026-04-28T10:02:59.882Z</time></trkpt><trkpt lat="39.360985321848894" lon="9.250498213838805"><ele>617.0</ele><time>2026-04-28T10:03:00.882Z</time></trkpt><trkpt lat="39.361014388679706" lon="9.250590283317848"><ele>618.0</ele><time>2026-04-28T10:03:01.883Z</time></trkpt><trkpt lat="39.36102761436763" lon="9.250677825654051"><ele>619.0</ele><time>2026-04-28T10:03:02.883Z</time></trkpt><trkpt lat="39.36104804980608" lon="9.250845726063687"><ele>620.0</ele><time>2026-04-28T10:03:03.883Z</time></trkpt><trkpt lat="39.36108756489886" lon="9.250934000504854"><ele>621.0</ele><time>2026-04-28T10:03:04.883Z</time></trkpt><trkpt lat="39.36124047208353" lon="9.25098108410851"><ele>622.0</ele><time>2026-04-28T10:03:06.883Z</time></trkpt><trkpt lat="39.361326620721556" lon="9.250952447337827"><ele>622.0</ele><time>2026-04-28T10:03:07.883Z</time></trkpt><trkpt lat="39.36131251341989" lon="9.250847213885235"><ele>622.0</ele><time>2026-04-28T10:03:08.883Z</time></trkpt><trkpt lat="39.36125497109759" lon="9.250796486661635"><ele>622.0</ele><time>2026-04-28T10:03:10.883Z</time></trkpt><trkpt lat="39.3612145309638" lon="9.25063245456904"><ele>622.0</ele><time>2026-04-28T10:03:13.883Z</time></trkpt><trkpt lat="39.36117778210225" lon="9.25052369465032"><ele>622.0</ele><time>2026-04-28T10:03:14.883Z</time></trkpt><trkpt lat="39.36116091288713" lon="9.250410560407886"><ele>621.1666666666667</ele><time>2026-04-28T10:03:15.883Z</time></trkpt><trkpt lat="39.36115160958955" lon="9.250301143489395"><ele>620.3333333333334</ele><time>2026-04-28T10:03:16.881Z</time></trkpt><trkpt lat="39.36115134863981" lon="9.250196676468832"><ele>619.5</ele><time>2026-04-28T10:03:17.882Z</time></trkpt><trkpt lat="39.36117918674473" lon="9.250095146918587"><ele>618.6666666666666</ele><time>2026-04-28T10:03:18.882Z</time></trkpt><trkpt lat="39.361234311948685" lon="9.250029449533784"><ele>617.8333333333333</ele><time>2026-04-28T10:03:19.881Z</time></trkpt><trkpt lat="39.36127724800744" lon="9.249929493732184"><ele>617.0</ele><time>2026-04-28T10:03:20.881Z</time></trkpt><trkpt lat="39.36136511920703" lon="9.249865840438085"><ele>615.0</ele><time>2026-04-28T10:03:22.882Z</time></trkpt><trkpt lat="39.36115736098551" lon="9.249484589727246"><ele>613.0</ele><time>2026-04-28T10:03:23.882Z</time></trkpt><trkpt lat="39.36115274123988" lon="9.249364237579961"><ele>613.0</ele><time>2026-04-28T10:03:24.882Z</time></trkpt><trkpt lat="39.361119962874376" lon="9.24920948525451"><ele>613.0</ele><time>2026-04-28T10:03:25.881Z</time></trkpt><trkpt lat="39.361511636929244" lon="9.249745068570485"><ele>615.0</ele><time>2026-04-28T10:03:26.881Z</time></trkpt><trkpt lat="39.361565482179664" lon="9.249680773368292"><ele>617.0</ele><time>2026-04-28T10:03:27.881Z</time></trkpt><trkpt lat="39.36161821832619" lon="9.249619057879453"><ele>619.0</ele><time>2026-04-28T10:03:28.881Z</time></trkpt><trkpt lat="39.361675264166536" lon="9.24956005645299"><ele>621.0</ele><time>2026-04-28T10:03:29.882Z</time></trkpt><trkpt lat="39.36175379243891" lon="9.249493386233745"><ele>623.0</ele><time>2026-04-28T10:03:31.882Z</time></trkpt><trkpt lat="39.361818063765455" lon="9.249548121314255"><ele>625.0</ele><time>2026-04-28T10:03:34.882Z</time></trkpt><trkpt lat="39.361755364333995" lon="9.249598776843385"><ele>625.0</ele><time>2026-04-28T10:03:37.882Z</time></trkpt><trkpt lat="39.36171113361237" lon="9.249702269011564"><ele>625.0</ele><time>2026-04-28T10:03:40.882Z</time></trkpt><trkpt lat="39.36166746585107" lon="9.249791155431652"><ele>625.0</ele><time>2026-04-28T10:03:42.882Z</time></trkpt><trkpt lat="39.36162061081658" lon="9.24992640991163"><ele>625.0</ele><time>2026-04-28T10:03:44.882Z</time></trkpt><trkpt lat="39.36158944373176" lon="9.250058037803647"><ele>625.0</ele><time>2026-04-28T10:03:46.882Z</time></trkpt><trkpt lat="39.361570514466926" lon="9.250200560891903"><ele>627.1666666666667</ele><time>2026-04-28T10:03:48.882Z</time></trkpt><trkpt lat="39.36158672594856" lon="9.250280848869421"><ele>629.3333333333334</ele><time>2026-04-28T10:03:49.882Z</time></trkpt><trkpt lat="39.3615993132735" lon="9.250411987174363"><ele>631.5</ele><time>2026-04-28T10:03:51.882Z</time></trkpt><trkpt lat="39.361638374599075" lon="9.250481050919305"><ele>633.6666666666666</ele><time>2026-04-28T10:03:52.882Z</time></trkpt><trkpt lat="39.361716565446926" lon="9.250524392841777"><ele>635.8333333333333</ele><time>2026-04-28T10:03:53.882Z</time></trkpt><trkpt lat="39.361777493821684" lon="9.250552250384091"><ele>638.0</ele><time>2026-04-28T10:03:54.882Z</time></trkpt><trkpt lat="39.36184352939256" lon="9.250576884496217"><ele>638.0</ele><time>2026-04-28T10:03:55.882Z</time></trkpt><trkpt lat="39.36195063190015" lon="9.250620475049635"><ele>638.0</ele><time>2026-04-28T10:03:57.882Z</time></trkpt><trkpt lat="39.36202684214618" lon="9.250702392487165"><ele>638.0</ele><time>2026-04-28T10:03:59.882Z</time></trkpt><trkpt lat="39.362098728202774" lon="9.250812910240253"><ele>638.0</ele><time>2026-04-28T10:04:01.882Z</time></trkpt><trkpt lat="39.36218154779641" lon="9.250935322158728"><ele>638.0</ele><time>2026-04-28T10:04:03.882Z</time></trkpt><trkpt lat="39.362216881057044" lon="9.251013319218778"><ele>637.7142857142858</ele><time>2026-04-28T10:04:04.882Z</time></trkpt><trkpt lat="39.36225833446424" lon="9.251102226655743"><ele>637.4285714285713</ele><time>2026-04-28T10:04:05.882Z</time></trkpt><trkpt lat="39.36230284987631" lon="9.251176072712648"><ele>637.1428571428571</ele><time>2026-04-28T10:04:06.882Z</time></trkpt><trkpt lat="39.36234367642565" lon="9.251266433488432"><ele>636.8571428571429</ele><time>2026-04-28T10:04:07.882Z</time></trkpt><trkpt lat="39.362382480973295" lon="9.251353632848334"><ele>636.5714285714287</ele><time>2026-04-28T10:04:08.882Z</time></trkpt><trkpt lat="39.36242061266589" lon="9.251430361790149"><ele>636.2857142857142</ele><time>2026-04-28T10:04:09.882Z</time></trkpt><trkpt lat="39.3624583375566" lon="9.251498624278259"><ele>636.0</ele><time>2026-04-28T10:04:10.882Z</time></trkpt><trkpt lat="39.362502966028764" lon="9.251564515047173"><ele>637.3333333333334</ele><time>2026-04-28T10:04:11.882Z</time></trkpt><trkpt lat="39.36255176041093" lon="9.251638208813498"><ele>638.6666666666666</ele><time>2026-04-28T10:04:12.882Z</time></trkpt><trkpt lat="39.36258548485522" lon="9.251709425375921"><ele>640.0</ele><time>2026-04-28T10:04:13.882Z</time></trkpt><trkpt lat="39.362625732644645" lon="9.25177744043358"><ele>641.3333333333333</ele><time>2026-04-28T10:04:14.882Z</time></trkpt><trkpt lat="39.36270076728913" lon="9.25191375811398"><ele>642.6666666666666</ele><time>2026-04-28T10:04:16.882Z</time></trkpt><trkpt lat="39.36274418597739" lon="9.25198411096506"><ele>644.0</ele><time>2026-04-28T10:04:17.882Z</time></trkpt><trkpt lat="39.3627977088128" lon="9.252048001851362"><ele>644.0</ele><time>2026-04-28T10:04:18.882Z</time></trkpt><trkpt lat="39.362830446017654" lon="9.252123389961667"><ele>644.0</ele><time>2026-04-28T10:04:19.882Z</time></trkpt><trkpt lat="39.3628779596228" lon="9.25220456027452"><ele>644.0</ele><time>2026-04-28T10:04:21.882Z</time></trkpt><trkpt lat="39.36290823105305" lon="9.252316068286081"><ele>644.0</ele><time>2026-04-28T10:04:23.882Z</time></trkpt><trkpt lat="39.36294298095319" lon="9.252410206572723"><ele>644.0</ele><time>2026-04-28T10:04:25.882Z</time></trkpt><trkpt lat="39.36298525567857" lon="9.252550912321707"><ele>644.0</ele><time>2026-04-28T10:04:27.882Z</time></trkpt><trkpt lat="39.363032436054" lon="9.252683169391686"><ele>643.5</ele><time>2026-04-28T10:04:29.882Z</time></trkpt><trkpt lat="39.363069691648356" lon="9.25275028333276"><ele>643.0</ele><time>2026-04-28T10:04:30.882Z</time></trkpt><trkpt lat="39.36313358326961" lon="9.252892401652133"><ele>642.5</ele><time>2026-04-28T10:04:32.882Z</time></trkpt><trkpt lat="39.36317669144712" lon="9.252961842122406"><ele>642.0</ele><time>2026-04-28T10:04:33.882Z</time></trkpt><trkpt lat="39.36320475199518" lon="9.253052016694944"><ele>641.5</ele><time>2026-04-28T10:04:35.882Z</time></trkpt><trkpt lat="39.36326345218917" lon="9.253153115270068"><ele>641.0</ele><time>2026-04-28T10:04:37.882Z</time></trkpt><trkpt lat="39.36329642145629" lon="9.253239587029277"><ele>641.0</ele><time>2026-04-28T10:04:39.882Z</time></trkpt><trkpt lat="39.363313974260144" lon="9.25334840836375"><ele>641.0</ele><time>2026-04-28T10:04:45.882Z</time></trkpt><trkpt lat="39.36340312186318" lon="9.253450722423587"><ele>641.0</ele><time>2026-04-28T10:04:47.882Z</time></trkpt><trkpt lat="39.36343741236195" lon="9.253542144993329"><ele>641.0</ele><time>2026-04-28T10:04:48.882Z</time></trkpt><trkpt lat="39.3634735378361" lon="9.253616356553781"><ele>641.0</ele><time>2026-04-28T10:04:49.882Z</time></trkpt><trkpt lat="39.363516900095725" lon="9.25370543404925"><ele>641.0</ele><time>2026-04-28T10:04:50.882Z</time></trkpt><trkpt lat="39.363549308205855" lon="9.25377668723721"><ele>641.0</ele><time>2026-04-28T10:04:51.882Z</time></trkpt><trkpt lat="39.363592581718" lon="9.253854643528458"><ele>641.0</ele><time>2026-04-28T10:04:52.882Z</time></trkpt><trkpt lat="39.36361535142717" lon="9.25394065121858"><ele>641.0</ele><time>2026-04-28T10:04:53.882Z</time></trkpt><trkpt lat="39.36362542395974" lon="9.254034696130242"><ele>641.0</ele><time>2026-04-28T10:04:54.882Z</time></trkpt><trkpt lat="39.36363639545014" lon="9.254123276089755"><ele>641.0</ele><time>2026-04-28T10:04:55.882Z</time></trkpt><trkpt lat="39.363668337033616" lon="9.254288112643113"><ele>641.0</ele><time>2026-04-28T10:04:57.882Z</time></trkpt><trkpt lat="39.36369611164534" lon="9.254372722269979"><ele>639.4285714285714</ele><time>2026-04-28T10:04:58.882Z</time></trkpt><trkpt lat="39.36371881081397" lon="9.254467016092827"><ele>637.8571428571429</ele><time>2026-04-28T10:04:59.882Z</time></trkpt><trkpt lat="39.363736633648855" lon="9.254551974892607"><ele>636.2857142857142</ele><time>2026-04-28T10:05:00.882Z</time></trkpt><trkpt lat="39.36375705013721" lon="9.254649431988671"><ele>634.7142857142858</ele><time>2026-04-28T10:05:01.882Z</time></trkpt><trkpt lat="39.36376870983073" lon="9.254738466754842"><ele>633.1428571428571</ele><time>2026-04-28T10:05:02.882Z</time></trkpt><trkpt lat="39.36377358110111" lon="9.254839523843279"><ele>631.5714285714286</ele><time>2026-04-28T10:05:03.882Z</time></trkpt><trkpt lat="39.363772306967874" lon="9.254933725938656"><ele>630.0</ele><time>2026-04-28T10:05:04.882Z</time></trkpt><trkpt lat="39.36376961448789" lon="9.255015178071016"><ele>629.4</ele><time>2026-04-28T10:05:05.882Z</time></trkpt><trkpt lat="39.36376985191183" lon="9.255100302361154"><ele>628.8</ele><time>2026-04-28T10:05:06.882Z</time></trkpt><trkpt lat="39.36377464276573" lon="9.255241965089255"><ele>628.2</ele><time>2026-04-28T10:05:08.882Z</time></trkpt><trkpt lat="39.36381057894303" lon="9.255377233096494"><ele>627.6</ele><time>2026-04-28T10:05:10.882Z</time></trkpt><trkpt lat="39.36387023278183" lon="9.255510219959246"><ele>627.0</ele><time>2026-04-28T10:05:12.882Z</time></trkpt><trkpt lat="39.36394267366516" lon="9.255593187469836"><ele>633.4000000000001</ele><time>2026-04-28T10:05:14.882Z</time></trkpt><trkpt lat="39.36402846758133" lon="9.255679773013675"><ele>639.8000000000001</ele><time>2026-04-28T10:05:16.882Z</time></trkpt><trkpt lat="39.3641155633692" lon="9.255758395282735"><ele>646.2</ele><time>2026-04-28T10:05:18.882Z</time></trkpt><trkpt lat="39.36419754666546" lon="9.255814085419036"><ele>652.6</ele><time>2026-04-28T10:05:20.882Z</time></trkpt><trkpt lat="39.36425621250551" lon="9.255857483954193"><ele>659.0</ele><time>2026-04-28T10:05:22.879Z</time></trkpt><trkpt lat="39.36417487433891" lon="9.255811495639943"><ele>659.0</ele><time>2026-04-28T10:05:39.88Z</time></trkpt><trkpt lat="39.36408914911848" lon="9.255712121177528"><ele>659.0</ele><time>2026-04-28T10:05:41.88Z</time></trkpt><trkpt lat="39.3639908098726" lon="9.255631415248937"><ele>659.0</ele><time>2026-04-28T10:05:43.88Z</time></trkpt><trkpt lat="39.36392054427473" lon="9.255512692698547"><ele>659.0</ele><time>2026-04-28T10:05:45.88Z</time></trkpt><trkpt lat="39.36385410037402" lon="9.255402529579353"><ele>654.1666666666666</ele><time>2026-04-28T10:05:47.88Z</time></trkpt><trkpt lat="39.36380296648585" lon="9.25529993132995"><ele>649.3333333333333</ele><time>2026-04-28T10:05:49.88Z</time></trkpt><trkpt lat="39.363785231109176" lon="9.255147040268655"><ele>644.5</ele><time>2026-04-28T10:05:51.88Z</time></trkpt><trkpt lat="39.3637814888424" lon="9.255060518145127"><ele>639.6666666666666</ele><time>2026-04-28T10:05:52.88Z</time></trkpt><trkpt lat="39.36378928407461" lon="9.254976428913231"><ele>634.8333333333334</ele><time>2026-04-28T10:05:53.88Z</time></trkpt><trkpt lat="39.36379996603751" lon="9.254873373121775"><ele>630.0</ele><time>2026-04-28T10:05:54.88Z</time></trkpt><trkpt lat="39.36378893530244" lon="9.254697088914241"><ele>630.0</ele><time>2026-04-28T10:05:56.88Z</time></trkpt><trkpt lat="39.363776587494" lon="9.254596291757968"><ele>630.0</ele><time>2026-04-28T10:05:57.88Z</time></trkpt><trkpt lat="39.36375807225923" lon="9.254498672998876"><ele>630.0</ele><time>2026-04-28T10:05:58.88Z</time></trkpt><trkpt lat="39.363740663197554" lon="9.254412775061873"><ele>630.0</ele><time>2026-04-28T10:05:59.88Z</time></trkpt><trkpt lat="39.36371563699124" lon="9.254315340495651"><ele>630.0</ele><time>2026-04-28T10:06:00.88Z</time></trkpt><trkpt lat="39.36369518436299" lon="9.254218472368867"><ele>630.0</ele><time>2026-04-28T10:06:01.88Z</time></trkpt><trkpt lat="39.36367727238201" lon="9.254132449898147"><ele>630.0</ele><time>2026-04-28T10:06:02.88Z</time></trkpt><trkpt lat="39.36365497463733" lon="9.254043136324489"><ele>630.0</ele><time>2026-04-28T10:06:03.88Z</time></trkpt><trkpt lat="39.36363580550781" lon="9.25395562133848"><ele>630.0</ele><time>2026-04-28T10:06:04.88Z</time></trkpt><trkpt lat="39.36361405945225" lon="9.253861816365083"><ele>630.0</ele><time>2026-04-28T10:06:05.88Z</time></trkpt><trkpt lat="39.363586245531025" lon="9.253777573047742"><ele>630.0</ele><time>2026-04-28T10:06:06.88Z</time></trkpt><trkpt lat="39.36354858840627" lon="9.253688190838064"><ele>630.0</ele><time>2026-04-28T10:06:07.88Z</time></trkpt><trkpt lat="39.36350535453663" lon="9.253598207637728"><ele>629.6666666666666</ele><time>2026-04-28T10:06:08.88Z</time></trkpt><trkpt lat="39.363455703443734" lon="9.253501290886167"><ele>629.3333333333334</ele><time>2026-04-28T10:06:09.88Z</time></trkpt><trkpt lat="39.363417010418566" lon="9.25341930097693"><ele>629.0</ele><time>2026-04-28T10:06:10.88Z</time></trkpt><trkpt lat="39.363368284279126" lon="9.2533318797544"><ele>628.6666666666667</ele><time>2026-04-28T10:06:11.88Z</time></trkpt><trkpt lat="39.36331580738862" lon="9.253231147695908"><ele>628.3333333333334</ele><time>2026-04-28T10:06:12.88Z</time></trkpt><trkpt lat="39.36326429384058" lon="9.253122672492353"><ele>628.0</ele><time>2026-04-28T10:06:13.88Z</time></trkpt><trkpt lat="39.36321720128749" lon="9.253018732237846"><ele>628.0</ele><time>2026-04-28T10:06:14.88Z</time></trkpt><trkpt lat="39.36316330776037" lon="9.25291135822241"><ele>628.0</ele><time>2026-04-28T10:06:15.88Z</time></trkpt><trkpt lat="39.363116123133075" lon="9.25280299428093"><ele>628.0</ele><time>2026-04-28T10:06:16.88Z</time></trkpt><trkpt lat="39.363064467349346" lon="9.252689270182692"><ele>628.0</ele><time>2026-04-28T10:06:17.88Z</time></trkpt><trkpt lat="39.36301770796791" lon="9.252578097439603"><ele>628.0</ele><time>2026-04-28T10:06:18.88Z</time></trkpt><trkpt lat="39.36297787947055" lon="9.25246714154191"><ele>630.4</ele><time>2026-04-28T10:06:19.88Z</time></trkpt><trkpt lat="39.36294632186878" lon="9.252359167682606"><ele>632.8</ele><time>2026-04-28T10:06:20.88Z</time></trkpt><trkpt lat="39.36293145484763" lon="9.252261564985453"><ele>635.2</ele><time>2026-04-28T10:06:21.88Z</time></trkpt><trkpt lat="39.36285771954453" lon="9.252098704789047"><ele>637.6</ele><time>2026-04-28T10:06:23.88Z</time></trkpt><trkpt lat="39.36281295246461" lon="9.252020084240886"><ele>640.0</ele><time>2026-04-28T10:06:24.88Z</time></trkpt><trkpt lat="39.36272190120674" lon="9.251873529176782"><ele>640.8</ele><time>2026-04-28T10:06:26.88Z</time></trkpt><trkpt lat="39.36266109650478" lon="9.25177565913487"><ele>641.6</ele><time>2026-04-28T10:06:27.88Z</time></trkpt><trkpt lat="39.36260588051726" lon="9.251685649655927"><ele>642.4000000000001</ele><time>2026-04-28T10:06:28.88Z</time></trkpt><trkpt lat="39.36254985839358" lon="9.251591083248798"><ele>643.2</ele><time>2026-04-28T10:06:29.88Z</time></trkpt><trkpt lat="39.36248945812235" lon="9.251484155225612"><ele>644.0</ele><time>2026-04-28T10:06:30.88Z</time></trkpt><trkpt lat="39.36243386238164" lon="9.25137027882581"><ele>643.2</ele><time>2026-04-28T10:06:31.88Z</time></trkpt><trkpt lat="39.36237830791138" lon="9.251249624286164"><ele>642.4000000000001</ele><time>2026-04-28T10:06:32.88Z</time></trkpt><trkpt lat="39.362323749402464" lon="9.25114412157663"><ele>641.6</ele><time>2026-04-28T10:06:33.88Z</time></trkpt><trkpt lat="39.36226753369171" lon="9.251042169873683"><ele>640.8</ele><time>2026-04-28T10:06:34.88Z</time></trkpt><trkpt lat="39.36221565185413" lon="9.250950533320358"><ele>640.0</ele><time>2026-04-28T10:06:35.88Z</time></trkpt><trkpt lat="39.36216492174319" lon="9.2508593590056"><ele>640.0</ele><time>2026-04-28T10:06:36.88Z</time></trkpt><trkpt lat="39.36212676513248" lon="9.25077250772102"><ele>640.0</ele><time>2026-04-28T10:06:37.88Z</time></trkpt><trkpt lat="39.36209030656103" lon="9.250693604232543"><ele>640.0</ele><time>2026-04-28T10:06:38.881Z</time></trkpt><trkpt lat="39.36201973177365" lon="9.250604078697627"><ele>640.0</ele><time>2026-04-28T10:06:40.881Z</time></trkpt><trkpt lat="39.36196992717023" lon="9.25053675734873"><ele>640.0</ele><time>2026-04-28T10:06:42.881Z</time></trkpt><trkpt lat="39.36189700752088" lon="9.250541847176532"><ele>640.0</ele><time>2026-04-28T10:07:51.879Z</time></trkpt><trkpt lat="39.36181239730355" lon="9.250520950793534"><ele>639.6666666666667</ele><time>2026-04-28T10:07:54.879Z</time></trkpt><trkpt lat="39.36173155587702" lon="9.250487165640873"><ele>639.3333333333334</ele><time>2026-04-28T10:07:57.879Z</time></trkpt><trkpt lat="39.36165947504982" lon="9.250432711273596"><ele>639.0</ele><time>2026-04-28T10:08:00.879Z</time></trkpt><trkpt lat="39.36162280206648" lon="9.250359322330246"><ele>638.6666666666666</ele><time>2026-04-28T10:08:02.879Z</time></trkpt><trkpt lat="39.36158981421346" lon="9.250256528918126"><ele>638.3333333333333</ele><time>2026-04-28T10:08:05.879Z</time></trkpt><trkpt lat="39.361608733909925" lon="9.250143177106027"><ele>638.0</ele><time>2026-04-28T10:08:08.879Z</time></trkpt><trkpt lat="39.36162265547828" lon="9.250063732693318"><ele>638.0</ele><time>2026-04-28T10:08:10.879Z</time></trkpt><trkpt lat="39.361649735102596" lon="9.249948841473318"><ele>638.0</ele><time>2026-04-28T10:08:13.879Z</time></trkpt><trkpt lat="39.36166943671849" lon="9.24984130862693"><ele>638.0</ele><time>2026-04-28T10:08:16.879Z</time></trkpt><trkpt lat="39.36171278223017" lon="9.249779185336285"><ele>638.0</ele><time>2026-04-28T10:08:18.879Z</time></trkpt><trkpt lat="39.36174799124977" lon="9.249690325675706"><ele>638.0</ele><time>2026-04-28T10:08:21.879Z</time></trkpt><trkpt lat="39.36180627677731" lon="9.249609353920048"><ele>638.0</ele><time>2026-04-28T10:08:24.879Z</time></trkpt><trkpt lat="39.361825223160345" lon="9.249526733440442"><ele>638.0</ele><time>2026-04-28T10:08:26.879Z</time></trkpt><trkpt lat="39.36178562251281" lon="9.249454941231596"><ele>638.0</ele><time>2026-04-28T10:08:30.879Z</time></trkpt><trkpt lat="39.36177617649777" lon="9.249636092032524"><ele>638.0</ele><time>2026-04-28T10:08:51.88Z</time></trkpt><trkpt lat="39.361705674321314" lon="9.249793656526828"><ele>638.0</ele><time>2026-04-28T10:08:53.88Z</time></trkpt><trkpt lat="39.36165141529349" lon="9.249933496644296"><ele>638.0</ele><time>2026-04-28T10:08:55.88Z</time></trkpt><trkpt lat="39.3616342328175" lon="9.25001197903111"><ele>638.0</ele><time>2026-04-28T10:08:56.88Z</time></trkpt><trkpt lat="39.36160412878495" lon="9.250104779645762"><ele>638.0</ele><time>2026-04-28T10:09:00.88Z</time></trkpt><trkpt lat="39.36159245775879" lon="9.250222074670676"><ele>638.0</ele><time>2026-04-28T10:09:02.88Z</time></trkpt><trkpt lat="39.36161305436083" lon="9.250351625142855"><ele>638.0</ele><time>2026-04-28T10:09:04.88Z</time></trkpt><trkpt lat="39.36167038791133" lon="9.25047017667625"><ele>638.0</ele><time>2026-04-28T10:09:06.88Z</time></trkpt><trkpt lat="39.361768221625205" lon="9.25053353209611"><ele>638.0</ele><time>2026-04-28T10:09:08.88Z</time></trkpt><trkpt lat="39.36187221451912" lon="9.250572333307874"><ele>638.0</ele><time>2026-04-28T10:09:10.88Z</time></trkpt><trkpt lat="39.36196931578103" lon="9.250599529899857"><ele>638.0</ele><time>2026-04-28T10:09:12.88Z</time></trkpt><trkpt lat="39.36206542176735" lon="9.250615656094281"><ele>638.0</ele><time>2026-04-28T10:09:14.88Z</time></trkpt><trkpt lat="39.36215610778239" lon="9.250667540986914"><ele>638.0</ele><time>2026-04-28T10:09:16.88Z</time></trkpt><trkpt lat="39.362153932152" lon="9.250863556313135"><ele>637.6666666666666</ele><time>2026-04-28T10:09:17.88Z</time></trkpt><trkpt lat="39.36222651552726" lon="9.251008421896719"><ele>637.3333333333333</ele><time>2026-04-28T10:09:19.88Z</time></trkpt><trkpt lat="39.362269704643296" lon="9.251092911313814"><ele>637.0</ele><time>2026-04-28T10:09:20.88Z</time></trkpt><trkpt lat="39.36232016521748" lon="9.251190778346292"><ele>636.6666666666666</ele><time>2026-04-28T10:09:21.88Z</time></trkpt><trkpt lat="39.36236483081872" lon="9.251276799245932"><ele>636.3333333333334</ele><time>2026-04-28T10:09:22.88Z</time></trkpt><trkpt lat="39.36239776281989" lon="9.251347256735272"><ele>636.0</ele><time>2026-04-28T10:09:23.88Z</time></trkpt><trkpt lat="39.362463943889004" lon="9.251485103360102"><ele>637.3333333333334</ele><time>2026-04-28T10:09:25.88Z</time></trkpt><trkpt lat="39.36248834841815" lon="9.251565105820744"><ele>638.6666666666666</ele><time>2026-04-28T10:09:26.88Z</time></trkpt><trkpt lat="39.362535078627374" lon="9.2516398878288"><ele>640.0</ele><time>2026-04-28T10:09:27.88Z</time></trkpt><trkpt lat="39.36258065895496" lon="9.251712130166526"><ele>641.3333333333333</ele><time>2026-04-28T10:09:28.88Z</time></trkpt><trkpt lat="39.36262543463743" lon="9.25177687519919"><ele>642.6666666666666</ele><time>2026-04-28T10:09:29.88Z</time></trkpt><trkpt lat="39.36267034884498" lon="9.25183548240776"><ele>644.0</ele><time>2026-04-28T10:09:30.88Z</time></trkpt><trkpt lat="39.36273583570686" lon="9.251963378119894"><ele>644.0</ele><time>2026-04-28T10:09:32.88Z</time></trkpt><trkpt lat="39.362809061202" lon="9.252074539857741"><ele>644.0</ele><time>2026-04-28T10:09:34.878Z</time></trkpt><trkpt lat="39.36287790397064" lon="9.25217172510744"><ele>644.0</ele><time>2026-04-28T10:09:36.878Z</time></trkpt><trkpt lat="39.36292026556144" lon="9.25229591549977"><ele>644.0</ele><time>2026-04-28T10:09:38.878Z</time></trkpt><trkpt lat="39.36294718935239" lon="9.252426826464728"><ele>644.0</ele><time>2026-04-28T10:09:40.878Z</time></trkpt><trkpt lat="39.36298300938642" lon="9.252559682562602"><ele>643.4000000000001</ele><time>2026-04-28T10:09:42.878Z</time></trkpt><trkpt lat="39.363026434100306" lon="9.25267739428046"><ele>642.8</ele><time>2026-04-28T10:09:44.878Z</time></trkpt><trkpt lat="39.36308313968262" lon="9.252782230157692"><ele>642.2</ele><time>2026-04-28T10:09:46.878Z</time></trkpt><trkpt lat="39.363133734687906" lon="9.252902909604105"><ele>641.5999999999999</ele><time>2026-04-28T10:09:48.877Z</time></trkpt><trkpt lat="39.363197842163736" lon="9.253034199981192"><ele>641.0</ele><time>2026-04-28T10:09:50.877Z</time></trkpt><trkpt lat="39.36326510593977" lon="9.25316916064515"><ele>641.0</ele><time>2026-04-28T10:09:52.877Z</time></trkpt><trkpt lat="39.363301556872216" lon="9.25324044193932"><ele>641.0</ele><time>2026-04-28T10:09:53.877Z</time></trkpt><trkpt lat="39.363348925710014" lon="9.253364029171848"><ele>641.0</ele><time>2026-04-28T10:09:55.877Z</time></trkpt><trkpt lat="39.36341465387272" lon="9.253477912958957"><ele>641.0</ele><time>2026-04-28T10:09:57.877Z</time></trkpt><trkpt lat="39.36347085722523" lon="9.25357668966386"><ele>641.0</ele><time>2026-04-28T10:09:59.877Z</time></trkpt><trkpt lat="39.363523042754935" lon="9.253680591534065"><ele>641.0</ele><time>2026-04-28T10:10:01.878Z</time></trkpt><trkpt lat="39.363570049409354" lon="9.253806178184561"><ele>641.0</ele><time>2026-04-28T10:10:03.878Z</time></trkpt><trkpt lat="39.36360796648005" lon="9.253946200426453"><ele>641.0</ele><time>2026-04-28T10:10:05.878Z</time></trkpt><trkpt lat="39.36362829373598" lon="9.254074370987457"><ele>641.0</ele><time>2026-04-28T10:10:07.878Z</time></trkpt><trkpt lat="39.36365053325884" lon="9.254164510433482"><ele>641.0</ele><time>2026-04-28T10:10:08.878Z</time></trkpt><trkpt lat="39.363681989542464" lon="9.254302838237336"><ele>638.25</ele><time>2026-04-28T10:10:10.878Z</time></trkpt><trkpt lat="39.363720615463514" lon="9.254452167074074"><ele>635.5</ele><time>2026-04-28T10:10:12.878Z</time></trkpt><trkpt lat="39.36375170806964" lon="9.254598085451276"><ele>632.75</ele><time>2026-04-28T10:10:14.878Z</time></trkpt><trkpt lat="39.36377488655115" lon="9.254760659079437"><ele>630.0</ele><time>2026-04-28T10:10:16.878Z</time></trkpt><trkpt lat="39.36376073309996" lon="9.254901123966645"><ele>629.4</ele><time>2026-04-28T10:10:18.878Z</time></trkpt><trkpt lat="39.363755919193956" lon="9.255033497515647"><ele>628.8</ele><time>2026-04-28T10:10:20.878Z</time></trkpt><trkpt lat="39.36375598360267" lon="9.255159559121976"><ele>628.2</ele><time>2026-04-28T10:10:22.878Z</time></trkpt><trkpt lat="39.363776430956456" lon="9.255286069885411"><ele>627.6</ele><time>2026-04-28T10:10:24.878Z</time></trkpt><trkpt lat="39.36382127229224" lon="9.255410548431534"><ele>627.0</ele><time>2026-04-28T10:10:26.878Z</time></trkpt><trkpt lat="39.36388968029469" lon="9.255539599272295"><ele>633.4000000000001</ele><time>2026-04-28T10:10:28.878Z</time></trkpt><trkpt lat="39.36397136680658" lon="9.255620109081306"><ele>639.8000000000001</ele><time>2026-04-28T10:10:30.878Z</time></trkpt><trkpt lat="39.36405800593432" lon="9.255693306328723"><ele>646.2</ele><time>2026-04-28T10:10:32.878Z</time></trkpt><trkpt lat="39.364145352718815" lon="9.255766888258485"><ele>652.6</ele><time>2026-04-28T10:10:34.878Z</time></trkpt><trkpt lat="39.36424424492499" lon="9.25584384956143"><ele>659.0</ele><time>2026-04-28T10:10:36.878Z</time></trkpt><trkpt lat="39.36433214102606" lon="9.255930418960052"><ele>659.0</ele><time>2026-04-28T10:10:38.878Z</time></trkpt><trkpt lat="39.364454303832844" lon="9.25597356532745"><ele>659.0</ele><time>2026-04-28T10:10:40.878Z</time></trkpt><trkpt lat="39.3645611075959" lon="9.256027740084892"><ele>659.0</ele><time>2026-04-28T10:10:42.878Z</time></trkpt><trkpt lat="39.364677993247994" lon="9.256102434731508"><ele>659.0</ele><time>2026-04-28T10:10:44.878Z</time></trkpt><trkpt lat="39.36478210699852" lon="9.256217011803761"><ele>660.0</ele><time>2026-04-28T10:10:46.878Z</time></trkpt><trkpt lat="39.36486151816833" lon="9.25634635810847"><ele>661.0</ele><time>2026-04-28T10:10:48.878Z</time></trkpt><trkpt lat="39.36491511532353" lon="9.256436823530855"><ele>662.0</ele><time>2026-04-28T10:10:50.878Z</time></trkpt><trkpt lat="39.364979802004214" lon="9.256548336216554"><ele>663.0</ele><time>2026-04-28T10:10:52.878Z</time></trkpt><trkpt lat="39.365050542159665" lon="9.256629429221526"><ele>664.0</ele><time>2026-04-28T10:10:54.878Z</time></trkpt><trkpt lat="39.36515271697585" lon="9.25670313693647"><ele>664.0</ele><time>2026-04-28T10:10:56.878Z</time></trkpt><trkpt lat="39.3652429500538" lon="9.256811180014724"><ele>664.0</ele><time>2026-04-28T10:10:58.878Z</time></trkpt><trkpt lat="39.3653341596685" lon="9.25689040156921"><ele>664.0</ele><time>2026-04-28T10:11:00.878Z</time></trkpt><trkpt lat="39.36540245369982" lon="9.257003929088592"><ele>664.0</ele><time>2026-04-28T10:11:02.878Z</time></trkpt><trkpt lat="39.36547367220839" lon="9.25710543011153"><ele>664.0</ele><time>2026-04-28T10:11:04.878Z</time></trkpt><trkpt lat="39.36548673358414" lon="9.257238911556454"><ele>664.0</ele><time>2026-04-28T10:11:06.878Z</time></trkpt><trkpt lat="39.365464172994855" lon="9.257367048500834"><ele>664.0</ele><time>2026-04-28T10:11:08.878Z</time></trkpt><trkpt lat="39.36547501900531" lon="9.257488540317647"><ele>664.0</ele><time>2026-04-28T10:11:10.878Z</time></trkpt><trkpt lat="39.365480087566056" lon="9.25760490275858"><ele>664.0</ele><time>2026-04-28T10:11:12.879Z</time></trkpt><trkpt lat="39.36549996713507" lon="9.25772433564217"><ele>661.4000000000001</ele><time>2026-04-28T10:11:14.879Z</time></trkpt><trkpt lat="39.365522128239846" lon="9.257831640769732"><ele>658.8</ele><time>2026-04-28T10:11:16.879Z</time></trkpt><trkpt lat="39.365563911187195" lon="9.257949694932485"><ele>656.2</ele><time>2026-04-28T10:11:19.879Z</time></trkpt><trkpt lat="39.36560618463614" lon="9.258080948053678"><ele>653.5999999999999</ele><time>2026-04-28T10:11:21.879Z</time></trkpt><trkpt lat="39.365661996938755" lon="9.258176592979622"><ele>651.0</ele><time>2026-04-28T10:11:23.879Z</time></trkpt><trkpt lat="39.365716130457635" lon="9.25826086077542"><ele>656.8333333333334</ele><time>2026-04-28T10:11:25.879Z</time></trkpt><trkpt lat="39.36576759360542" lon="9.258326928838978"><ele>662.6666666666666</ele><time>2026-04-28T10:11:27.879Z</time></trkpt><trkpt lat="39.36584350125442" lon="9.25841108132935"><ele>668.5</ele><time>2026-04-28T10:11:29.879Z</time></trkpt><trkpt lat="39.365930276339725" lon="9.258485361773191"><ele>674.3333333333333</ele><time>2026-04-28T10:11:31.879Z</time></trkpt><trkpt lat="39.3660112888307" lon="9.258543738064937"><ele>680.1666666666666</ele><time>2026-04-28T10:11:33.879Z</time></trkpt><trkpt lat="39.366084213581864" lon="9.258585402864561"><ele>686.0</ele><time>2026-04-28T10:11:35.879Z</time></trkpt><trkpt lat="39.36616808819678" lon="9.25861998296756"><ele>686.0</ele><time>2026-04-28T10:11:37.879Z</time></trkpt><trkpt lat="39.36625858102532" lon="9.258637487541362"><ele>686.0</ele><time>2026-04-28T10:11:40.877Z</time></trkpt><trkpt lat="39.36635036467985" lon="9.258657645053873"><ele>686.0</ele><time>2026-04-28T10:11:42.877Z</time></trkpt><trkpt lat="39.3664472421257" lon="9.258688445974757"><ele>686.0</ele><time>2026-04-28T10:11:44.877Z</time></trkpt><trkpt lat="39.36657230945231" lon="9.258704937435054"><ele>686.0</ele><time>2026-04-28T10:11:46.877Z</time></trkpt><trkpt lat="39.366686198781224" lon="9.258713644867196"><ele>690.0</ele><time>2026-04-28T10:11:48.877Z</time></trkpt><trkpt lat="39.36677126708355" lon="9.2587385574487"><ele>694.0</ele><time>2026-04-28T10:11:50.877Z</time></trkpt><trkpt lat="39.36685952555154" lon="9.258761495961462"><ele>698.0</ele><time>2026-04-28T10:11:52.877Z</time></trkpt><trkpt lat="39.36695516610828" lon="9.258789094729398"><ele>702.0</ele><time>2026-04-28T10:11:54.877Z</time></trkpt><trkpt lat="39.36706332227305" lon="9.258802146667186"><ele>706.0</ele><time>2026-04-28T10:11:56.877Z</time></trkpt><trkpt lat="39.3671560968872" lon="9.258828686614216"><ele>706.4</ele><time>2026-04-28T10:11:58.877Z</time></trkpt><trkpt lat="39.36726044299784" lon="9.25885576924651"><ele>706.8</ele><time>2026-04-28T10:12:00.877Z</time></trkpt><trkpt lat="39.36736676198406" lon="9.258877240577426"><ele>707.1999999999999</ele><time>2026-04-28T10:12:02.877Z</time></trkpt><trkpt lat="39.36743229975344" lon="9.25888346129415"><ele>707.5999999999999</ele><time>2026-04-28T10:12:03.877Z</time></trkpt><trkpt lat="39.36754452106135" lon="9.25891017590509"><ele>708.0</ele><time>2026-04-28T10:12:05.877Z</time></trkpt><trkpt lat="39.36764739066506" lon="9.25896398014353"><ele>708.0</ele><time>2026-04-28T10:12:07.877Z</time></trkpt><trkpt lat="39.36773684751965" lon="9.259012040937456"><ele>708.0</ele><time>2026-04-28T10:12:09.877Z</time></trkpt><trkpt lat="39.36782364587262" lon="9.25909251575895"><ele>708.0</ele><time>2026-04-28T10:12:11.877Z</time></trkpt><trkpt lat="39.367892850571316" lon="9.25919997103445"><ele>708.0</ele><time>2026-04-28T10:12:13.877Z</time></trkpt><trkpt lat="39.36792972528096" lon="9.259300983124422"><ele>708.0</ele><time>2026-04-28T10:12:15.877Z</time></trkpt><trkpt lat="39.36795288344037" lon="9.25940145881226"><ele>708.0</ele><time>2026-04-28T10:12:17.877Z</time></trkpt><trkpt lat="39.367977249651766" lon="9.259533141573433"><ele>708.0</ele><time>2026-04-28T10:12:19.877Z</time></trkpt><trkpt lat="39.36799698105877" lon="9.259668214964684"><ele>708.0</ele><time>2026-04-28T10:12:21.877Z</time></trkpt><trkpt lat="39.368024304410945" lon="9.259781875403533"><ele>708.0</ele><time>2026-04-28T10:12:23.877Z</time></trkpt><trkpt lat="39.36801839201108" lon="9.259891611867152"><ele>708.0</ele><time>2026-04-28T10:12:25.877Z</time></trkpt><trkpt lat="39.368038597383205" lon="9.260020323459898"><ele>712.5</ele><time>2026-04-28T10:12:27.877Z</time></trkpt><trkpt lat="39.368078379696016" lon="9.260141743692998"><ele>717.0</ele><time>2026-04-28T10:12:29.877Z</time></trkpt><trkpt lat="39.36811365609544" lon="9.260248109812192"><ele>721.5</ele><time>2026-04-28T10:12:31.877Z</time></trkpt><trkpt lat="39.36813378152454" lon="9.260328043443423"><ele>726.0</ele><time>2026-04-28T10:12:33.877Z</time></trkpt><trkpt lat="39.36814144236189" lon="9.26044671106671"><ele>730.5</ele><time>2026-04-28T10:12:36.877Z</time></trkpt><trkpt lat="39.36819729110109" lon="9.260547303072558"><ele>735.0</ele><time>2026-04-28T10:12:38.877Z</time></trkpt><trkpt lat="39.36828172598186" lon="9.26063264965562"><ele>735.0</ele><time>2026-04-28T10:12:40.877Z</time></trkpt><trkpt lat="39.36833513253136" lon="9.260727078302606"><ele>735.0</ele><time>2026-04-28T10:12:42.877Z</time></trkpt><trkpt lat="39.36840513122592" lon="9.26081858857946"><ele>735.0</ele><time>2026-04-28T10:12:44.877Z</time></trkpt><trkpt lat="39.368479740325284" lon="9.260894922128283"><ele>735.0</ele><time>2026-04-28T10:12:46.877Z</time></trkpt><trkpt lat="39.368510221453676" lon="9.26100845102368"><ele>735.0</ele><time>2026-04-28T10:12:48.877Z</time></trkpt><trkpt lat="39.368498230507214" lon="9.261137697216208"><ele>735.0</ele><time>2026-04-28T10:12:50.877Z</time></trkpt><trkpt lat="39.3684848536693" lon="9.261260859799457"><ele>735.0</ele><time>2026-04-28T10:12:52.877Z</time></trkpt><trkpt lat="39.36849028791044" lon="9.261395516367196"><ele>735.0</ele><time>2026-04-28T10:12:54.877Z</time></trkpt><trkpt lat="39.36846732864228" lon="9.261504174236219"><ele>735.0</ele><time>2026-04-28T10:12:56.877Z</time></trkpt><trkpt lat="39.36846604626769" lon="9.261622732139452"><ele>735.0</ele><time>2026-04-28T10:12:58.878Z</time></trkpt><trkpt lat="39.36849238494476" lon="9.261709323948933"><ele>735.0</ele><time>2026-04-28T10:13:00.878Z</time></trkpt><trkpt lat="39.368572358840545" lon="9.261750164097554"><ele>735.0</ele><time>2026-04-28T10:13:02.878Z</time></trkpt><trkpt lat="39.36863875117923" lon="9.26163664458789"><ele>735.0</ele><time>2026-04-28T10:13:04.878Z</time></trkpt><trkpt lat="39.3686745516628" lon="9.261504087144605"><ele>735.0</ele><time>2026-04-28T10:13:06.878Z</time></trkpt><trkpt lat="39.36873981259901" lon="9.26136481151576"><ele>735.0</ele><time>2026-04-28T10:13:08.878Z</time></trkpt><trkpt lat="39.36878467062825" lon="9.261297354459991"><ele>735.0</ele><time>2026-04-28T10:13:09.878Z</time></trkpt><trkpt lat="39.36882409347159" lon="9.26123120108394"><ele>735.0</ele><time>2026-04-28T10:13:10.878Z</time></trkpt><trkpt lat="39.36886388336723" lon="9.26111155721801"><ele>735.0</ele><time>2026-04-28T10:13:12.878Z</time></trkpt><trkpt lat="39.368921501708854" lon="9.261036412695974"><ele>735.0</ele><time>2026-04-28T10:13:14.878Z</time></trkpt><trkpt lat="39.36898101077432" lon="9.261071099183773"><ele>735.0</ele><time>2026-04-28T10:13:18.878Z</time></trkpt><trkpt lat="39.36895922349825" lon="9.261168879763938"><ele>735.0</ele><time>2026-04-28T10:13:21.878Z</time></trkpt><trkpt lat="39.36893661319591" lon="9.261285094741673"><ele>735.3333333333334</ele><time>2026-04-28T10:13:23.878Z</time></trkpt><trkpt lat="39.36889939645039" lon="9.261405786819267"><ele>735.6666666666666</ele><time>2026-04-28T10:13:25.878Z</time></trkpt><trkpt lat="39.36888352160048" lon="9.261506376709566"><ele>736.0</ele><time>2026-04-28T10:13:27.878Z</time></trkpt><trkpt lat="39.368865936351504" lon="9.261606598336929"><ele>736.3333333333333</ele><time>2026-04-28T10:13:30.878Z</time></trkpt><trkpt lat="39.36885549010667" lon="9.261716433651795"><ele>736.6666666666666</ele><time>2026-04-28T10:13:32.878Z</time></trkpt><trkpt lat="39.3688495683447" lon="9.261841025799201"><ele>737.0</ele><time>2026-04-28T10:13:34.878Z</time></trkpt><trkpt lat="39.36885083861304" lon="9.261950990334757"><ele>741.8</ele><time>2026-04-28T10:13:36.878Z</time></trkpt><trkpt lat="39.36886425306597" lon="9.262062839661288"><ele>746.6</ele><time>2026-04-28T10:13:38.878Z</time></trkpt><trkpt lat="39.36889666516819" lon="9.262155934791418"><ele>751.4</ele><time>2026-04-28T10:13:40.878Z</time></trkpt><trkpt lat="39.36894567147559" lon="9.262279549188536"><ele>756.1999999999999</ele><time>2026-04-28T10:13:42.878Z</time></trkpt><trkpt lat="39.36899855492064" lon="9.262412824143237"><ele>761.0</ele><time>2026-04-28T10:13:44.878Z</time></trkpt><trkpt lat="39.369040763478445" lon="9.26252069846365"><ele>761.0</ele><time>2026-04-28T10:13:47.876Z</time></trkpt><trkpt lat="39.36907710390303" lon="9.262601755530142"><ele>761.0</ele><time>2026-04-28T10:13:49.875Z</time></trkpt><trkpt lat="39.36914248045279" lon="9.262718767946081"><ele>761.0</ele><time>2026-04-28T10:13:52.876Z</time></trkpt><trkpt lat="39.369198529142245" lon="9.262801099452043"><ele>761.0</ele><time>2026-04-28T10:13:54.876Z</time></trkpt><trkpt lat="39.36925957453426" lon="9.262874381010741"><ele>761.0</ele><time>2026-04-28T10:13:56.876Z</time></trkpt><trkpt lat="39.36934175057718" lon="9.262942697091962"><ele>761.0</ele><time>2026-04-28T10:13:58.876Z</time></trkpt><trkpt lat="39.36944127448461" lon="9.26299439685493"><ele>761.0</ele><time>2026-04-28T10:14:00.876Z</time></trkpt><trkpt lat="39.36954143779819" lon="9.263015848396515"><ele>761.0</ele><time>2026-04-28T10:14:02.876Z</time></trkpt><trkpt lat="39.3696379366184" lon="9.263027845467006"><ele>761.0</ele><time>2026-04-28T10:14:04.876Z</time></trkpt><trkpt lat="39.36972288426759" lon="9.26302976675872"><ele>761.0</ele><time>2026-04-28T10:14:06.876Z</time></trkpt><trkpt lat="39.36978818338506" lon="9.263026525871354"><ele>764.8333333333333</ele><time>2026-04-28T10:14:07.876Z</time></trkpt><trkpt lat="39.36986030263535" lon="9.263017958421885"><ele>768.6666666666666</ele><time>2026-04-28T10:14:08.876Z</time></trkpt><trkpt lat="39.369973959214875" lon="9.262999970955553"><ele>772.5</ele><time>2026-04-28T10:14:09.876Z</time></trkpt><trkpt lat="39.37004404945228" lon="9.26298029664834"><ele>776.3333333333333</ele><time>2026-04-28T10:14:10.876Z</time></trkpt><trkpt lat="39.370126908025036" lon="9.262948758992781"><ele>780.1666666666666</ele><time>2026-04-28T10:14:12.876Z</time></trkpt><trkpt lat="39.37018792781774" lon="9.262919191018884"><ele>784.0</ele><time>2026-04-28T10:14:13.876Z</time></trkpt><trkpt lat="39.37025602953331" lon="9.262881577694081"><ele>784.0</ele><time>2026-04-28T10:14:14.876Z</time></trkpt><trkpt lat="39.3703406002205" lon="9.262833211134714"><ele>784.0</ele><time>2026-04-28T10:14:16.876Z</time></trkpt><trkpt lat="39.37040227418212" lon="9.262796591279184"><ele>784.0</ele><time>2026-04-28T10:14:17.876Z</time></trkpt><trkpt lat="39.37046318431134" lon="9.262760425076294"><ele>784.0</ele><time>2026-04-28T10:14:18.876Z</time></trkpt><trkpt lat="39.37051983299586" lon="9.262709679904681"><ele>784.0</ele><time>2026-04-28T10:14:19.876Z</time></trkpt><trkpt lat="39.37058410380344" lon="9.262696726955502"><ele>784.0</ele><time>2026-04-28T10:14:20.876Z</time></trkpt><trkpt lat="39.370670111007904" lon="9.262692610835092"><ele>784.0</ele><time>2026-04-28T10:14:21.876Z</time></trkpt><trkpt lat="39.370734554117504" lon="9.262647164378002"><ele>784.4000000000001</ele><time>2026-04-28T10:14:22.876Z</time></trkpt><trkpt lat="39.37080443144938" lon="9.262603493715595"><ele>784.8</ele><time>2026-04-28T10:14:23.876Z</time></trkpt><trkpt lat="39.37089108473575" lon="9.26254465473038"><ele>785.2</ele><time>2026-04-28T10:14:25.876Z</time></trkpt><trkpt lat="39.37098836348683" lon="9.262485765589073"><ele>785.5999999999999</ele><time>2026-04-28T10:14:27.876Z</time></trkpt><trkpt lat="39.37108828806568" lon="9.262447588298288"><ele>786.0</ele><time>2026-04-28T10:14:29.876Z</time></trkpt><trkpt lat="39.37119158213352" lon="9.262458009458692"><ele>786.0</ele><time>2026-04-28T10:14:31.876Z</time></trkpt><trkpt lat="39.37126901018263" lon="9.262535951631625"><ele>786.0</ele><time>2026-04-28T10:14:33.876Z</time></trkpt><trkpt lat="39.37131991825825" lon="9.262677933969327"><ele>786.0</ele><time>2026-04-28T10:14:35.876Z</time></trkpt><trkpt lat="39.37136567752473" lon="9.262781293144522"><ele>786.0</ele><time>2026-04-28T10:14:37.876Z</time></trkpt><trkpt lat="39.37138486460686" lon="9.262888502272583"><ele>786.0</ele><time>2026-04-28T10:14:39.876Z</time></trkpt><trkpt lat="39.3713930917631" lon="9.263022609758824"><ele>785.5999999999999</ele><time>2026-04-28T10:14:41.876Z</time></trkpt><trkpt lat="39.37138597846566" lon="9.263165650921739"><ele>785.2</ele><time>2026-04-28T10:14:43.876Z</time></trkpt><trkpt lat="39.37135876592542" lon="9.263294451941215"><ele>784.8</ele><time>2026-04-28T10:14:45.876Z</time></trkpt><trkpt lat="39.3713396260437" lon="9.263433838300774"><ele>784.4000000000001</ele><time>2026-04-28T10:14:47.876Z</time></trkpt><trkpt lat="39.37131870497038" lon="9.263563084205105"><ele>784.0</ele><time>2026-04-28T10:14:49.876Z</time></trkpt><trkpt lat="39.37128703170457" lon="9.263689780314396"><ele>784.0</ele><time>2026-04-28T10:14:51.876Z</time></trkpt><trkpt lat="39.37124322798664" lon="9.263797050555963"><ele>784.0</ele><time>2026-04-28T10:14:53.876Z</time></trkpt><trkpt lat="39.371177891742" lon="9.26388783120051"><ele>784.0</ele><time>2026-04-28T10:14:55.876Z</time></trkpt><trkpt lat="39.3710908443" lon="9.263959714010822"><ele>784.0</ele><time>2026-04-28T10:14:57.876Z</time></trkpt><trkpt lat="39.37096790221767" lon="9.264085477143297"><ele>786.9999999999999</ele><time>2026-04-28T10:14:59.877Z</time></trkpt><trkpt lat="39.370916337789765" lon="9.264147373714941"><ele>790.0</ele><time>2026-04-28T10:15:00.877Z</time></trkpt><trkpt lat="39.370870991509506" lon="9.26421143375988"><ele>793.0</ele><time>2026-04-28T10:15:01.877Z</time></trkpt><trkpt lat="39.370826097848884" lon="9.26427132191349"><ele>796.0</ele><time>2026-04-28T10:15:02.877Z</time></trkpt><trkpt lat="39.370736819474565" lon="9.264382616552425"><ele>798.9999999999999</ele><time>2026-04-28T10:15:04.877Z</time></trkpt><trkpt lat="39.37066741479189" lon="9.264485841306458"><ele>802.0</ele><time>2026-04-28T10:15:06.877Z</time></trkpt><trkpt lat="39.37064261805043" lon="9.264579437243048"><ele>802.0</ele><time>2026-04-28T10:16:48.875Z</time></trkpt><trkpt lat="39.37064341752607" lon="9.264698842957433"><ele>802.0</ele><time>2026-04-28T10:16:50.875Z</time></trkpt><trkpt lat="39.37065585850171" lon="9.26483173147973"><ele>802.0</ele><time>2026-04-28T10:16:52.875Z</time></trkpt><trkpt lat="39.370620359894" lon="9.264973224473584"><ele>802.0</ele><time>2026-04-28T10:16:54.875Z</time></trkpt><trkpt lat="39.370584762923755" lon="9.26508176107075"><ele>802.0</ele><time>2026-04-28T10:16:56.875Z</time></trkpt><trkpt lat="39.370601595781096" lon="9.265194900974462"><ele>805.2</ele><time>2026-04-28T10:16:58.875Z</time></trkpt><trkpt lat="39.37058354478638" lon="9.265301144317773"><ele>808.4000000000001</ele><time>2026-04-28T10:17:00.875Z</time></trkpt><trkpt lat="39.37058304960881" lon="9.265427451600994"><ele>811.5999999999999</ele><time>2026-04-28T10:17:02.875Z</time></trkpt><trkpt lat="39.37059991014835" lon="9.265550676212646"><ele>814.8</ele><time>2026-04-28T10:17:04.875Z</time></trkpt><trkpt lat="39.370625485149915" lon="9.265698971631425"><ele>818.0</ele><time>2026-04-28T10:17:06.875Z</time></trkpt><trkpt lat="39.370676115043025" lon="9.265821495392727"><ele>818.4</ele><time>2026-04-28T10:17:08.875Z</time></trkpt><trkpt lat="39.37075846032091" lon="9.265901773328919"><ele>818.8</ele><time>2026-04-28T10:17:10.875Z</time></trkpt><trkpt lat="39.37085781676594" lon="9.265939378088182"><ele>819.2</ele><time>2026-04-28T10:17:12.875Z</time></trkpt><trkpt lat="39.37096156622078" lon="9.266003690057117"><ele>819.6</ele><time>2026-04-28T10:17:14.875Z</time></trkpt><trkpt lat="39.37104853968826" lon="9.266080213274694"><ele>820.0</ele><time>2026-04-28T10:17:16.875Z</time></trkpt><trkpt lat="39.37113488878048" lon="9.266167309464482"><ele>820.0</ele><time>2026-04-28T10:17:18.875Z</time></trkpt><trkpt lat="39.371171265541726" lon="9.266270403281663"><ele>820.0</ele><time>2026-04-28T10:17:20.875Z</time></trkpt><trkpt lat="39.37125835830745" lon="9.26638287106939"><ele>820.0</ele><time>2026-04-28T10:17:22.875Z</time></trkpt><trkpt lat="39.371314504278246" lon="9.266503099019731"><ele>820.0</ele><time>2026-04-28T10:17:24.875Z</time></trkpt><trkpt lat="39.37134873824357" lon="9.266618349287013"><ele>820.0</ele><time>2026-04-28T10:17:26.875Z</time></trkpt><trkpt lat="39.3713676675075" lon="9.266755616543296"><ele>825.0</ele><time>2026-04-28T10:17:28.875Z</time></trkpt><trkpt lat="39.371371916264" lon="9.266880545517697"><ele>830.0</ele><time>2026-04-28T10:17:30.876Z</time></trkpt><trkpt lat="39.37139913663481" lon="9.267025220008993"><ele>835.0</ele><time>2026-04-28T10:17:32.876Z</time></trkpt><trkpt lat="39.371399894510645" lon="9.267178967244414"><ele>840.0</ele><time>2026-04-28T10:17:34.876Z</time></trkpt><trkpt lat="39.37137757977769" lon="9.26730287126368"><ele>845.0</ele><time>2026-04-28T10:17:36.876Z</time></trkpt><trkpt lat="39.371364379161385" lon="9.267384196424745"><ele>845.0</ele><time>2026-04-28T10:17:38.876Z</time></trkpt><trkpt lat="39.37144828453302" lon="9.26741139562724"><ele>845.0</ele><time>2026-04-28T10:17:41.876Z</time></trkpt><trkpt lat="39.3714820669201" lon="9.26731412796038"><ele>845.0</ele><time>2026-04-28T10:17:43.876Z</time></trkpt><trkpt lat="39.37147441986011" lon="9.2671650074822"><ele>845.0</ele><time>2026-04-28T10:17:45.876Z</time></trkpt><trkpt lat="39.37147571751008" lon="9.267056733581528"><ele>845.0</ele><time>2026-04-28T10:17:47.876Z</time></trkpt><trkpt lat="39.37150923600185" lon="9.266936104251934"><ele>845.0000000000001</ele><time>2026-04-28T10:17:49.876Z</time></trkpt><trkpt lat="39.371550223954415" lon="9.266861528174232"><ele>845.0</ele><time>2026-04-28T10:17:51.876Z</time></trkpt><trkpt lat="39.37157439956614" lon="9.266750769456655"><ele>845.0</ele><time>2026-04-28T10:17:53.876Z</time></trkpt><trkpt lat="39.37159754116681" lon="9.266629344087919"><ele>845.0</ele><time>2026-04-28T10:17:55.876Z</time></trkpt><trkpt lat="39.37161996019866" lon="9.26650668396973"><ele>845.0000000000001</ele><time>2026-04-28T10:17:57.876Z</time></trkpt><trkpt lat="39.37162741095774" lon="9.266398098777811"><ele>845.0</ele><time>2026-04-28T10:17:59.874Z</time></trkpt><trkpt lat="39.37167570719991" lon="9.266276351100334"><ele>844.0</ele><time>2026-04-28T10:18:01.874Z</time></trkpt><trkpt lat="39.371734504006334" lon="9.266167325682625"><ele>843.0</ele><time>2026-04-28T10:18:03.874Z</time></trkpt><trkpt lat="39.37180487166068" lon="9.266074973323061"><ele>842.0</ele><time>2026-04-28T10:18:05.874Z</time></trkpt><trkpt lat="39.371851617136684" lon="9.265998978816649"><ele>841.0</ele><time>2026-04-28T10:18:07.874Z</time></trkpt><trkpt lat="39.3719261377805" lon="9.265962242107495"><ele>840.0</ele><time>2026-04-28T10:18:09.874Z</time></trkpt><trkpt lat="39.37201787494197" lon="9.265914541669165"><ele>840.0</ele><time>2026-04-28T10:18:11.874Z</time></trkpt><trkpt lat="39.37210753339778" lon="9.265884830516349"><ele>840.0</ele><time>2026-04-28T10:18:13.874Z</time></trkpt><trkpt lat="39.3721774841094" lon="9.265859687397459"><ele>840.0</ele><time>2026-04-28T10:18:15.874Z</time></trkpt><trkpt lat="39.3722772634505" lon="9.265824000577036"><ele>840.0</ele><time>2026-04-28T10:18:17.874Z</time></trkpt><trkpt lat="39.372374740106935" lon="9.265798109983281"><ele>840.0</ele><time>2026-04-28T10:18:19.874Z</time></trkpt><trkpt lat="39.37245615325888" lon="9.265787749604932"><ele>843.4</ele><time>2026-04-28T10:18:21.874Z</time></trkpt><trkpt lat="39.372542094988276" lon="9.265764972444519"><ele>846.8</ele><time>2026-04-28T10:18:23.874Z</time></trkpt><trkpt lat="39.37262756047669" lon="9.265750150780802"><ele>850.2</ele><time>2026-04-28T10:18:25.874Z</time></trkpt><trkpt lat="39.37271334462046" lon="9.265706228615734"><ele>853.6</ele><time>2026-04-28T10:18:27.875Z</time></trkpt><trkpt lat="39.37280098136726" lon="9.265686521397342"><ele>857.0</ele><time>2026-04-28T10:18:29.875Z</time></trkpt><trkpt lat="39.372900288000004" lon="9.265665342416986"><ele>857.0</ele><time>2026-04-28T10:18:31.875Z</time></trkpt><trkpt lat="39.372992939723765" lon="9.265638123246545"><ele>857.0</ele><time>2026-04-28T10:18:33.875Z</time></trkpt><trkpt lat="39.37308693033876" lon="9.265605921140288"><ele>857.0</ele><time>2026-04-28T10:18:35.875Z</time></trkpt><trkpt lat="39.373175820991314" lon="9.265581920529662"><ele>857.0</ele><time>2026-04-28T10:18:37.875Z</time></trkpt><trkpt lat="39.37328548208691" lon="9.265573538292598"><ele>857.0</ele><time>2026-04-28T10:18:39.875Z</time></trkpt><trkpt lat="39.37337114673009" lon="9.265556310885357"><ele>856.6</ele><time>2026-04-28T10:18:41.875Z</time></trkpt><trkpt lat="39.373474922455415" lon="9.265545808655581"><ele>856.2</ele><time>2026-04-28T10:18:43.875Z</time></trkpt><trkpt lat="39.37358262779559" lon="9.265542769189004"><ele>855.8</ele><time>2026-04-28T10:18:45.875Z</time></trkpt><trkpt lat="39.37368258733292" lon="9.265547206937706"><ele>855.4</ele><time>2026-04-28T10:18:47.875Z</time></trkpt><trkpt lat="39.37380257884767" lon="9.265554604089372"><ele>855.0</ele><time>2026-04-28T10:18:49.875Z</time></trkpt><trkpt lat="39.37390404318452" lon="9.26556177001307"><ele>855.0</ele><time>2026-04-28T10:18:51.875Z</time></trkpt><trkpt lat="39.373996592476665" lon="9.265577532101064"><ele>855.0</ele><time>2026-04-28T10:18:53.875Z</time></trkpt><trkpt lat="39.37410444460807" lon="9.265590694597309"><ele>855.0</ele><time>2026-04-28T10:18:55.875Z</time></trkpt><trkpt lat="39.374201120284646" lon="9.265602702921836"><ele>855.0</ele><time>2026-04-28T10:18:57.875Z</time></trkpt><trkpt lat="39.37430314120988" lon="9.265637219092632"><ele>855.0</ele><time>2026-04-28T10:18:59.875Z</time></trkpt><trkpt lat="39.37441175158961" lon="9.265674612958536"><ele>859.6</ele><time>2026-04-28T10:19:01.875Z</time></trkpt><trkpt lat="39.37450317074325" lon="9.265749129975847"><ele>864.2</ele><time>2026-04-28T10:19:03.875Z</time></trkpt><trkpt lat="39.37460901310046" lon="9.265788908839488"><ele>868.8</ele><time>2026-04-28T10:19:05.875Z</time></trkpt><trkpt lat="39.374703158259656" lon="9.26582584715259"><ele>873.4</ele><time>2026-04-28T10:19:07.875Z</time></trkpt><trkpt lat="39.374812534455145" lon="9.265878407760976"><ele>878.0</ele><time>2026-04-28T10:19:09.875Z</time></trkpt><trkpt lat="39.374907959706434" lon="9.265913484667426"><ele>878.0</ele><time>2026-04-28T10:19:11.875Z</time></trkpt><trkpt lat="39.37501153197779" lon="9.265938759487106"><ele>878.0</ele><time>2026-04-28T10:19:13.875Z</time></trkpt><trkpt lat="39.375085515538494" lon="9.265991543652301"><ele>878.0</ele><time>2026-04-28T10:19:15.875Z</time></trkpt><trkpt lat="39.37517884771206" lon="9.266044922082763"><ele>878.0</ele><time>2026-04-28T10:19:17.875Z</time></trkpt><trkpt lat="39.37526402097707" lon="9.266106053401295"><ele>878.0</ele><time>2026-04-28T10:19:19.875Z</time></trkpt><trkpt lat="39.37534260042801" lon="9.266185832540073"><ele>878.0</ele><time>2026-04-28T10:19:21.875Z</time></trkpt><trkpt lat="39.37541168345046" lon="9.266283287856469"><ele>878.0</ele><time>2026-04-28T10:19:23.875Z</time></trkpt><trkpt lat="39.375489541198235" lon="9.266388045470544"><ele>878.0</ele><time>2026-04-28T10:19:25.875Z</time></trkpt><trkpt lat="39.375533958397206" lon="9.266499250289648"><ele>878.0</ele><time>2026-04-28T10:19:27.875Z</time></trkpt><trkpt lat="39.375590203441206" lon="9.26657222408748"><ele>878.0</ele><time>2026-04-28T10:19:29.875Z</time></trkpt><trkpt lat="39.37565593898552" lon="9.266658899203952"><ele>880.2</ele><time>2026-04-28T10:19:31.875Z</time></trkpt><trkpt lat="39.37571384296743" lon="9.266755093007815"><ele>882.4</ele><time>2026-04-28T10:19:33.875Z</time></trkpt><trkpt lat="39.37577810328724" lon="9.266858350079447"><ele>884.6000000000001</ele><time>2026-04-28T10:19:35.875Z</time></trkpt><trkpt lat="39.37583629378733" lon="9.266980250215365"><ele>886.8000000000001</ele><time>2026-04-28T10:19:37.876Z</time></trkpt><trkpt lat="39.37589309980925" lon="9.267080388914922"><ele>889.0</ele><time>2026-04-28T10:19:39.876Z</time></trkpt><trkpt lat="39.37594325316407" lon="9.267139136702019"><ele>889.0</ele><time>2026-04-28T10:19:40.876Z</time></trkpt><trkpt lat="39.37604649570509" lon="9.267216963501596"><ele>889.0000000000001</ele><time>2026-04-28T10:19:42.876Z</time></trkpt><trkpt lat="39.37615211364041" lon="9.267247472364534"><ele>889.0000000000001</ele><time>2026-04-28T10:19:44.876Z</time></trkpt><trkpt lat="39.37626366079105" lon="9.267271765169033"><ele>889.0</ele><time>2026-04-28T10:19:46.876Z</time></trkpt><trkpt lat="39.37635726904888" lon="9.26732165215446"><ele>889.0</ele><time>2026-04-28T10:19:48.876Z</time></trkpt><trkpt lat="39.3764772188236" lon="9.267355258674439"><ele>893.5</ele><time>2026-04-28T10:19:50.876Z</time></trkpt><trkpt lat="39.376602240312884" lon="9.267345740691933"><ele>898.0</ele><time>2026-04-28T10:19:52.876Z</time></trkpt><trkpt lat="39.37670477767986" lon="9.267354203459625"><ele>902.5</ele><time>2026-04-28T10:19:54.878Z</time></trkpt><trkpt lat="39.376816455083656" lon="9.267347984621903"><ele>907.0</ele><time>2026-04-28T10:19:56.881Z</time></trkpt><trkpt lat="39.37693940795316" lon="9.267324687054248"><ele>906.9999999999999</ele><time>2026-04-28T10:19:58.884Z</time></trkpt><trkpt lat="39.37706472434829" lon="9.26733614475512"><ele>907.0</ele><time>2026-04-28T10:20:00.886Z</time></trkpt><trkpt lat="39.37715711668704" lon="9.267338406117323"><ele>907.0</ele><time>2026-04-28T10:20:02.889Z</time></trkpt><trkpt lat="39.37722273000217" lon="9.267349846049363"><ele>907.0</ele><time>2026-04-28T10:20:04.887Z</time></trkpt><trkpt lat="39.37731598520544" lon="9.267329150159549"><ele>906.9999999999999</ele><time>2026-04-28T10:20:07.89Z</time></trkpt><trkpt lat="39.37738179721255" lon="9.267357838824358"><ele>907.0</ele><time>2026-04-28T10:20:09.891Z</time></trkpt><trkpt lat="39.37746147511951" lon="9.267359019324518"><ele>907.8333333333333</ele><time>2026-04-28T10:20:11.892Z</time></trkpt><trkpt lat="39.37753216522672" lon="9.267345100349388"><ele>908.6666666666666</ele><time>2026-04-28T10:20:13.894Z</time></trkpt><trkpt lat="39.377603507914664" lon="9.267350618379957"><ele>909.5</ele><time>2026-04-28T10:20:15.894Z</time></trkpt><trkpt lat="39.37766988752222" lon="9.267379474104272"><ele>910.3333333333333</ele><time>2026-04-28T10:20:17.895Z</time></trkpt><trkpt lat="39.37773737951394" lon="9.267459869478165"><ele>911.1666666666666</ele><time>2026-04-28T10:20:19.896Z</time></trkpt><trkpt lat="39.37780573398017" lon="9.267543066590575"><ele>912.0</ele><time>2026-04-28T10:20:21.897Z</time></trkpt><trkpt lat="39.37784743258777" lon="9.267671865077556"><ele>912.0</ele><time>2026-04-28T10:20:23.897Z</time></trkpt><trkpt lat="39.37790613538214" lon="9.267812995388129"><ele>912.0</ele><time>2026-04-28T10:20:25.898Z</time></trkpt><trkpt lat="39.37796092918409" lon="9.26795560729076"><ele>912.0</ele><time>2026-04-28T10:20:27.898Z</time></trkpt><trkpt lat="39.37798399253206" lon="9.26803493777862"><ele>912.0</ele><time>2026-04-28T10:20:28.899Z</time></trkpt><trkpt lat="39.378030752275954" lon="9.268171847396374"><ele>912.0</ele><time>2026-04-28T10:20:30.899Z</time></trkpt><trkpt lat="39.37807632431225" lon="9.26833330343289"><ele>913.1666666666666</ele><time>2026-04-28T10:20:32.899Z</time></trkpt><trkpt lat="39.37809621339232" lon="9.268416435872842"><ele>914.3333333333333</ele><time>2026-04-28T10:20:33.9Z</time></trkpt><trkpt lat="39.37811465744264" lon="9.26849461047495"><ele>915.5</ele><time>2026-04-28T10:20:34.9Z</time></trkpt><trkpt lat="39.3781475988923" lon="9.268573213064224"><ele>916.6666666666666</ele><time>2026-04-28T10:20:35.9Z</time></trkpt><trkpt lat="39.37817782576194" lon="9.268647576887284"><ele>917.8333333333333</ele><time>2026-04-28T10:20:36.9Z</time></trkpt><trkpt lat="39.378242644275" lon="9.268783531621287"><ele>919.0</ele><time>2026-04-28T10:20:38.9Z</time></trkpt><trkpt lat="39.37828419617448" lon="9.268849376809666"><ele>919.0</ele><time>2026-04-28T10:20:39.9Z</time></trkpt><trkpt lat="39.37833094377192" lon="9.268912819311234"><ele>919.0000000000001</ele><time>2026-04-28T10:20:40.901Z</time></trkpt><trkpt lat="39.378415666328046" lon="9.269007914330679"><ele>919.0000000000001</ele><time>2026-04-28T10:20:42.901Z</time></trkpt><trkpt lat="39.378503977344" lon="9.269109150900473"><ele>919.0</ele><time>2026-04-28T10:20:44.901Z</time></trkpt><trkpt lat="39.3785889886035" lon="9.269216725816136"><ele>919.0</ele><time>2026-04-28T10:20:46.901Z</time></trkpt><trkpt lat="39.37870323523307" lon="9.269309781818421"><ele>919.1666666666666</ele><time>2026-04-28T10:20:48.901Z</time></trkpt><trkpt lat="39.378770212716" lon="9.269351744527679"><ele>919.3333333333333</ele><time>2026-04-28T10:20:49.901Z</time></trkpt><trkpt lat="39.378844200886185" lon="9.269384546715465"><ele>919.5</ele><time>2026-04-28T10:20:50.901Z</time></trkpt><trkpt lat="39.37897096710574" lon="9.269408600840393"><ele>919.6666666666667</ele><time>2026-04-28T10:20:52.901Z</time></trkpt><trkpt lat="39.3790359419788" lon="9.26941330195048"><ele>919.8333333333334</ele><time>2026-04-28T10:20:53.902Z</time></trkpt><trkpt lat="39.37909994521028" lon="9.269412110355658"><ele>920.0</ele><time>2026-04-28T10:20:54.902Z</time></trkpt><trkpt lat="39.379223907905526" lon="9.269409340367655"><ele>920.0000000000001</ele><time>2026-04-28T10:20:56.902Z</time></trkpt><trkpt lat="39.379287909428754" lon="9.269416813738966"><ele>920.0</ele><time>2026-04-28T10:20:57.902Z</time></trkpt><trkpt lat="39.37935637473514" lon="9.269421673200906"><ele>920.0</ele><time>2026-04-28T10:20:58.902Z</time></trkpt><trkpt lat="39.37942687377785" lon="9.26942612044555"><ele>920.0</ele><time>2026-04-28T10:20:59.902Z</time></trkpt><trkpt lat="39.37954153309252" lon="9.269421840493743"><ele>920.0000000000001</ele><time>2026-04-28T10:21:01.902Z</time></trkpt><trkpt lat="39.37965094102715" lon="9.269419916056863"><ele>920.0</ele><time>2026-04-28T10:21:03.902Z</time></trkpt><trkpt lat="39.37976294389548" lon="9.269425852228702"><ele>918.2</ele><time>2026-04-28T10:21:05.902Z</time></trkpt><trkpt lat="39.37986783607245" lon="9.269400970005709"><ele>916.4</ele><time>2026-04-28T10:21:07.902Z</time></trkpt><trkpt lat="39.37994143086223" lon="9.26936298782077"><ele>914.5999999999999</ele><time>2026-04-28T10:21:09.902Z</time></trkpt><trkpt lat="39.38002835250427" lon="9.269318966548514"><ele>912.8</ele><time>2026-04-28T10:21:11.902Z</time></trkpt><trkpt lat="39.38011519051374" lon="9.269269320784812"><ele>911.0</ele><time>2026-04-28T10:21:13.902Z</time></trkpt><trkpt lat="39.380198350913254" lon="9.269225704629308"><ele>911.0000000000001</ele><time>2026-04-28T10:21:15.902Z</time></trkpt><trkpt lat="39.38027662357183" lon="9.269170492078867"><ele>911.0</ele><time>2026-04-28T10:21:17.902Z</time></trkpt><trkpt lat="39.3803430576819" lon="9.26913953970149"><ele>911.0</ele><time>2026-04-28T10:21:19.903Z</time></trkpt><trkpt lat="39.38041951142426" lon="9.26910223881494"><ele>911.0</ele><time>2026-04-28T10:21:22.903Z</time></trkpt><trkpt lat="39.380500449430706" lon="9.269036987593498"><ele>911.0000000000001</ele><time>2026-04-28T10:22:30.903Z</time></trkpt><trkpt lat="39.38056564882539" lon="9.268981666154403"><ele>911.0</ele><time>2026-04-28T10:22:32.903Z</time></trkpt><trkpt lat="39.38063284424065" lon="9.268918329525253"><ele>911.1999999999999</ele><time>2026-04-28T10:22:34.903Z</time></trkpt><trkpt lat="39.38069327608993" lon="9.268858327720412"><ele>911.3999999999999</ele><time>2026-04-28T10:22:36.903Z</time></trkpt><trkpt lat="39.380785810552894" lon="9.268786349045401"><ele>911.6</ele><time>2026-04-28T10:22:39.903Z</time></trkpt><trkpt lat="39.38087446407002" lon="9.26870628918588"><ele>911.8</ele><time>2026-04-28T10:22:41.903Z</time></trkpt><trkpt lat="39.380957072543076" lon="9.268614505422075"><ele>912.0</ele><time>2026-04-28T10:22:43.903Z</time></trkpt><trkpt lat="39.38104202200207" lon="9.26853506293755"><ele>912.0</ele><time>2026-04-28T10:22:45.903Z</time></trkpt><trkpt lat="39.381124621118744" lon="9.26844020952007"><ele>912.0</ele><time>2026-04-28T10:22:47.903Z</time></trkpt><trkpt lat="39.381205283834134" lon="9.268340198021804"><ele>912.0</ele><time>2026-04-28T10:22:49.903Z</time></trkpt><trkpt lat="39.3812764759633" lon="9.268244281141332"><ele>912.0</ele><time>2026-04-28T10:22:51.903Z</time></trkpt><trkpt lat="39.38133847222782" lon="9.268167774913207"><ele>912.0</ele><time>2026-04-28T10:22:53.903Z</time></trkpt><trkpt lat="39.38141081049245" lon="9.26815524120856"><ele>908.8571428571428</ele><time>2026-04-28T10:22:55.903Z</time></trkpt><trkpt lat="39.38147882809233" lon="9.268168252054153"><ele>905.7142857142856</ele><time>2026-04-28T10:22:57.903Z</time></trkpt><trkpt lat="39.38156284128622" lon="9.268148621798005"><ele>902.5714285714286</ele><time>2026-04-28T10:23:00.903Z</time></trkpt><trkpt lat="39.381631231543835" lon="9.268146483426507"><ele>899.4285714285713</ele><time>2026-04-28T10:23:03.903Z</time></trkpt><trkpt lat="39.3816930438139" lon="9.268162300288816"><ele>896.2857142857142</ele><time>2026-04-28T10:23:06.903Z</time></trkpt><trkpt lat="39.38176809427809" lon="9.268179429403377"><ele>893.1428571428571</ele><time>2026-04-28T10:23:10.903Z</time></trkpt><trkpt lat="39.38185117473167" lon="9.268196360387062"><ele>890.0</ele><time>2026-04-28T10:23:14.904Z</time></trkpt><trkpt lat="39.38191438610751" lon="9.268203711233241"><ele>890.0000000000001</ele><time>2026-04-28T10:23:17.904Z</time></trkpt><trkpt lat="39.38198678696263" lon="9.26820977372235"><ele>890.0</ele><time>2026-04-28T10:23:21.904Z</time></trkpt><trkpt lat="39.382067502836776" lon="9.26821148575094"><ele>890.0</ele><time>2026-04-28T10:23:27.904Z</time></trkpt><trkpt lat="39.38214633160791" lon="9.268210466623604"><ele>890.0</ele><time>2026-04-28T10:23:30.904Z</time></trkpt><trkpt lat="39.38221421086286" lon="9.268211932840035"><ele>890.0000000000001</ele><time>2026-04-28T10:23:33.904Z</time></trkpt><trkpt lat="39.382310754173204" lon="9.268205733526854"><ele>890.0</ele><time>2026-04-28T10:23:36.904Z</time></trkpt><trkpt lat="39.38238192265177" lon="9.268209265061179"><ele>887.0000000000001</ele><time>2026-04-28T10:23:38.904Z</time></trkpt><trkpt lat="39.38245938995781" lon="9.268207623046905"><ele>884.0</ele><time>2026-04-28T10:23:41.904Z</time></trkpt><trkpt lat="39.382526049602085" lon="9.268193593296873"><ele>881.0</ele><time>2026-04-28T10:23:44.904Z</time></trkpt><trkpt lat="39.38260833331784" lon="9.268188461785039"><ele>878.0</ele><time>2026-04-28T10:23:47.904Z</time></trkpt><trkpt lat="39.382687720363165" lon="9.268207451036236"><ele>875.0000000000001</ele><time>2026-04-28T10:23:49.904Z</time></trkpt><trkpt lat="39.38277623526673" lon="9.2682436943523"><ele>872.0</ele><time>2026-04-28T10:23:51.904Z</time></trkpt><trkpt lat="39.382854258061144" lon="9.268290126027365"><ele>872.0000000000001</ele><time>2026-04-28T10:23:53.904Z</time></trkpt><trkpt lat="39.38292920607311" lon="9.26836585141636"><ele>872.0</ele><time>2026-04-28T10:23:55.904Z</time></trkpt><trkpt lat="39.383007916262535" lon="9.26844196348989"><ele>872.0</ele><time>2026-04-28T10:23:57.904Z</time></trkpt><trkpt lat="39.38308821749905" lon="9.268476508194546"><ele>872.0</ele><time>2026-04-28T10:23:59.904Z</time></trkpt><trkpt lat="39.38317141490155" lon="9.268503047482591"><ele>872.0000000000001</ele><time>2026-04-28T10:24:01.904Z</time></trkpt><trkpt lat="39.38324893441893" lon="9.268519937398906"><ele>872.0</ele><time>2026-04-28T10:24:03.904Z</time></trkpt><trkpt lat="39.383328761049675" lon="9.268549290624446"><ele>869.2</ele><time>2026-04-28T10:24:05.904Z</time></trkpt><trkpt lat="39.38340372301604" lon="9.268584162670807"><ele>866.4000000000001</ele><time>2026-04-28T10:24:07.905Z</time></trkpt><trkpt lat="39.383490082351656" lon="9.268634846686696"><ele>863.5999999999999</ele><time>2026-04-28T10:24:09.905Z</time></trkpt><trkpt lat="39.38357841869314" lon="9.268665363201121"><ele>860.8</ele><time>2026-04-28T10:24:11.905Z</time></trkpt><trkpt lat="39.383675399717376" lon="9.26869610585577"><ele>858.0</ele><time>2026-04-28T10:24:13.905Z</time></trkpt><trkpt lat="39.383789328653606" lon="9.268709183656181"><ele>856.0</ele><time>2026-04-28T10:24:15.902Z</time></trkpt><trkpt lat="39.383861488569316" lon="9.268703879490415"><ele>854.0</ele><time>2026-04-28T10:24:16.902Z</time></trkpt><trkpt lat="39.38394013682106" lon="9.268690832602969"><ele>852.0</ele><time>2026-04-28T10:24:17.902Z</time></trkpt><trkpt lat="39.384025646408226" lon="9.268670058227631"><ele>850.0</ele><time>2026-04-28T10:24:18.902Z</time></trkpt><trkpt lat="39.38411311662496" lon="9.268649582012332"><ele>848.0</ele><time>2026-04-28T10:24:19.902Z</time></trkpt><trkpt lat="39.384201078744006" lon="9.268632167099213"><ele>846.0</ele><time>2026-04-28T10:24:20.902Z</time></trkpt><trkpt lat="39.384290079277605" lon="9.26861091076706"><ele>846.0</ele><time>2026-04-28T10:24:21.902Z</time></trkpt><trkpt lat="39.384354557617925" lon="9.268587664293817"><ele>846.0</ele><time>2026-04-28T10:24:22.903Z</time></trkpt><trkpt lat="39.384471100516336" lon="9.268576195240456"><ele>846.0</ele><time>2026-04-28T10:24:24.903Z</time></trkpt><trkpt lat="39.3845353128724" lon="9.268585720055038"><ele>846.0</ele><time>2026-04-28T10:24:25.902Z</time></trkpt><trkpt lat="39.3846048807238" lon="9.268615402654962"><ele>846.0</ele><time>2026-04-28T10:24:26.902Z</time></trkpt><trkpt lat="39.38468642703697" lon="9.268659196570882"><ele>846.0</ele><time>2026-04-28T10:24:27.902Z</time></trkpt><trkpt lat="39.38477498485062" lon="9.268707643220992"><ele>846.0</ele><time>2026-04-28T10:24:28.902Z</time></trkpt><trkpt lat="39.38486936432884" lon="9.268757956901757"><ele>846.0</ele><time>2026-04-28T10:24:29.902Z</time></trkpt><trkpt lat="39.38496426738562" lon="9.26880316173098"><ele>846.0</ele><time>2026-04-28T10:24:30.902Z</time></trkpt><trkpt lat="39.385053867557005" lon="9.268842831679484"><ele>846.0</ele><time>2026-04-28T10:24:31.902Z</time></trkpt><trkpt lat="39.38514430643151" lon="9.268879146946277"><ele>846.0</ele><time>2026-04-28T10:24:32.902Z</time></trkpt><trkpt lat="39.3852288326472" lon="9.26891527567881"><ele>845.6666666666666</ele><time>2026-04-28T10:24:33.902Z</time></trkpt><trkpt lat="39.38531110271779" lon="9.268946771035065"><ele>845.3333333333333</ele><time>2026-04-28T10:24:34.902Z</time></trkpt><trkpt lat="39.385383978565756" lon="9.268976862466744"><ele>845.0</ele><time>2026-04-28T10:24:35.902Z</time></trkpt><trkpt lat="39.38545803817703" lon="9.269019001728038"><ele>844.6666666666666</ele><time>2026-04-28T10:24:36.902Z</time></trkpt><trkpt lat="39.38552029087715" lon="9.269074950712973"><ele>844.3333333333333</ele><time>2026-04-28T10:24:37.902Z</time></trkpt><trkpt lat="39.38559839382583" lon="9.26912659432937"><ele>844.0</ele><time>2026-04-28T10:24:38.902Z</time></trkpt><trkpt lat="39.38567086992289" lon="9.269172512558669"><ele>843.9999999999999</ele><time>2026-04-28T10:24:39.902Z</time></trkpt><trkpt lat="39.38573581221593" lon="9.26921175678187"><ele>844.0</ele><time>2026-04-28T10:24:40.902Z</time></trkpt><trkpt lat="39.38583088199419" lon="9.269306857576606"><ele>844.0</ele><time>2026-04-28T10:24:42.902Z</time></trkpt><trkpt lat="39.38587252273684" lon="9.269374998944581"><ele>844.0</ele><time>2026-04-28T10:24:43.902Z</time></trkpt><trkpt lat="39.38591873079976" lon="9.269471560662915"><ele>843.9999999999999</ele><time>2026-04-28T10:24:44.902Z</time></trkpt><trkpt lat="39.38595586710442" lon="9.269574327742076"><ele>844.0</ele><time>2026-04-28T10:24:45.902Z</time></trkpt><trkpt lat="39.385992525801306" lon="9.269676321532629"><ele>842.9999999999999</ele><time>2026-04-28T10:24:46.902Z</time></trkpt><trkpt lat="39.38602731204529" lon="9.269778953574049"><ele>842.0</ele><time>2026-04-28T10:24:47.902Z</time></trkpt><trkpt lat="39.386054382567266" lon="9.269873298736465"><ele>841.0</ele><time>2026-04-28T10:24:48.902Z</time></trkpt><trkpt lat="39.386086789829946" lon="9.269944360195419"><ele>840.0</ele><time>2026-04-28T10:24:49.902Z</time></trkpt><trkpt lat="39.3861356463106" lon="9.270002752645494"><ele>838.9999999999999</ele><time>2026-04-28T10:24:50.902Z</time></trkpt><trkpt lat="39.38626332925762" lon="9.270076043705183"><ele>838.0</ele><time>2026-04-28T10:24:52.902Z</time></trkpt><trkpt lat="39.38634620844525" lon="9.270125964429013"><ele>837.5999999999999</ele><time>2026-04-28T10:24:53.902Z</time></trkpt><trkpt lat="39.38643843659131" lon="9.270179045226628"><ele>837.1999999999999</ele><time>2026-04-28T10:24:54.902Z</time></trkpt><trkpt lat="39.38652819292724" lon="9.270233069218527"><ele>836.8</ele><time>2026-04-28T10:24:55.902Z</time></trkpt><trkpt lat="39.38661811472774" lon="9.270289772299403"><ele>836.4</ele><time>2026-04-28T10:24:56.902Z</time></trkpt><trkpt lat="39.38669678195232" lon="9.270336349382625"><ele>836.0</ele><time>2026-04-28T10:24:57.902Z</time></trkpt><trkpt lat="39.38676810606847" lon="9.270366449741816"><ele>836.0000000000001</ele><time>2026-04-28T10:24:58.902Z</time></trkpt><trkpt lat="39.38682923814751" lon="9.270393703146492"><ele>836.0</ele><time>2026-04-28T10:24:59.902Z</time></trkpt><trkpt lat="39.386930182400405" lon="9.270472017524877"><ele>836.0</ele><time>2026-04-28T10:25:01.902Z</time></trkpt><trkpt lat="39.386970503178134" lon="9.270537615612376"><ele>836.0</ele><time>2026-04-28T10:25:02.902Z</time></trkpt><trkpt lat="39.3870091311822" lon="9.270619325335796"><ele>836.0000000000001</ele><time>2026-04-28T10:25:03.902Z</time></trkpt><trkpt lat="39.38705560431607" lon="9.27070782999493"><ele>836.0</ele><time>2026-04-28T10:25:04.902Z</time></trkpt><trkpt lat="39.38710070554122" lon="9.270779300939818"><ele>836.1666666666667</ele><time>2026-04-28T10:25:05.902Z</time></trkpt><trkpt lat="39.387175054870426" lon="9.270921470162405"><ele>836.3333333333334</ele><time>2026-04-28T10:25:07.902Z</time></trkpt><trkpt lat="39.387243666957275" lon="9.271010649588078"><ele>836.5</ele><time>2026-04-28T10:25:09.903Z</time></trkpt><trkpt lat="39.387317434861004" lon="9.271045015695641"><ele>836.6666666666667</ele><time>2026-04-28T10:25:11.903Z</time></trkpt><trkpt lat="39.38737101560839" lon="9.27109609391733"><ele>836.8333333333334</ele><time>2026-04-28T10:25:13.903Z</time></trkpt><trkpt lat="39.38743310590541" lon="9.271115042635873"><ele>837.0</ele><time>2026-04-28T10:25:15.903Z</time></trkpt><trkpt lat="39.38754079835625" lon="9.271154001559607"><ele>835.8333333333334</ele><time>2026-04-28T10:25:17.903Z</time></trkpt><trkpt lat="39.38761859603133" lon="9.271173627369738"><ele>834.6666666666667</ele><time>2026-04-28T10:25:18.903Z</time></trkpt><trkpt lat="39.38769164324646" lon="9.271191641859232"><ele>833.5</ele><time>2026-04-28T10:25:19.903Z</time></trkpt><trkpt lat="39.387764361504225" lon="9.271209499696043"><ele>832.3333333333334</ele><time>2026-04-28T10:25:20.903Z</time></trkpt><trkpt lat="39.38784839425524" lon="9.271240032066745"><ele>831.1666666666667</ele><time>2026-04-28T10:25:21.903Z</time></trkpt><trkpt lat="39.38793416965888" lon="9.271279139162568"><ele>830.0</ele><time>2026-04-28T10:25:22.903Z</time></trkpt><trkpt lat="39.38801346958083" lon="9.271323071005138"><ele>828.8333333333334</ele><time>2026-04-28T10:25:23.903Z</time></trkpt><trkpt lat="39.388096147008746" lon="9.271367815566274"><ele>827.6666666666667</ele><time>2026-04-28T10:25:24.903Z</time></trkpt><trkpt lat="39.38817067447212" lon="9.271412864384823"><ele>826.5</ele><time>2026-04-28T10:25:25.903Z</time></trkpt><trkpt lat="39.38825111674354" lon="9.271459537629722"><ele>825.3333333333333</ele><time>2026-04-28T10:25:26.903Z</time></trkpt><trkpt lat="39.388334083445926" lon="9.271514074142903"><ele>824.1666666666666</ele><time>2026-04-28T10:25:27.903Z</time></trkpt><trkpt lat="39.388409308481876" lon="9.271556777890808"><ele>823.0</ele><time>2026-04-28T10:25:28.903Z</time></trkpt><trkpt lat="39.388471750139836" lon="9.271596081455254"><ele>822.9999999999999</ele><time>2026-04-28T10:25:29.903Z</time></trkpt><trkpt lat="39.388535850617224" lon="9.27163414166885"><ele>823.0</ele><time>2026-04-28T10:25:30.903Z</time></trkpt><trkpt lat="39.38859648587505" lon="9.271667881513496"><ele>823.0</ele><time>2026-04-28T10:25:31.903Z</time></trkpt><trkpt lat="39.3886610576252" lon="9.271710109925248"><ele>823.0</ele><time>2026-04-28T10:25:32.903Z</time></trkpt><trkpt lat="39.38871667678649" lon="9.271760472040558"><ele>822.9999999999999</ele><time>2026-04-28T10:25:33.903Z</time></trkpt><trkpt lat="39.388779764702264" lon="9.271828243400167"><ele>823.0</ele><time>2026-04-28T10:25:34.903Z</time></trkpt><trkpt lat="39.38885478607105" lon="9.271907340946534"><ele>822.9999999999999</ele><time>2026-04-28T10:25:35.903Z</time></trkpt><trkpt lat="39.38892543491144" lon="9.271985178330349"><ele>823.0</ele><time>2026-04-28T10:25:36.903Z</time></trkpt><trkpt lat="39.38898564755935" lon="9.27205304735401"><ele>823.0</ele><time>2026-04-28T10:25:37.903Z</time></trkpt><trkpt lat="39.38903523874244" lon="9.272107918867452"><ele>823.0</ele><time>2026-04-28T10:25:38.903Z</time></trkpt><trkpt lat="39.38909525459554" lon="9.272169313139662"><ele>822.9999999999999</ele><time>2026-04-28T10:25:39.903Z</time></trkpt><trkpt lat="39.38917106844908" lon="9.272249008994491"><ele>823.0</ele><time>2026-04-28T10:25:40.903Z</time></trkpt><trkpt lat="39.38925168467465" lon="9.272329878765083"><ele>822.9999999999999</ele><time>2026-04-28T10:25:41.903Z</time></trkpt><trkpt lat="39.38932540045871" lon="9.272394013952699"><ele>823.0</ele><time>2026-04-28T10:25:42.903Z</time></trkpt><trkpt lat="39.389400898166336" lon="9.272437672419303"><ele>823.0</ele><time>2026-04-28T10:25:43.903Z</time></trkpt><trkpt lat="39.38949061350319" lon="9.272458079110404"><ele>823.0</ele><time>2026-04-28T10:25:44.903Z</time></trkpt><trkpt lat="39.38958591818068" lon="9.272447510298697"><ele>822.9999999999999</ele><time>2026-04-28T10:25:45.903Z</time></trkpt><trkpt lat="39.389672173474516" lon="9.2724218232468"><ele>823.0</ele><time>2026-04-28T10:25:46.903Z</time></trkpt><trkpt lat="39.389739228594976" lon="9.272385823386491"><ele>823.3333333333333</ele><time>2026-04-28T10:25:47.903Z</time></trkpt><trkpt lat="39.389794630173036" lon="9.272332381823732"><ele>823.6666666666666</ele><time>2026-04-28T10:25:48.903Z</time></trkpt><trkpt lat="39.38983909723226" lon="9.272264815226285"><ele>824.0</ele><time>2026-04-28T10:25:49.903Z</time></trkpt><trkpt lat="39.38988493463302" lon="9.272179319627327"><ele>824.3333333333333</ele><time>2026-04-28T10:25:50.903Z</time></trkpt><trkpt lat="39.389934754658356" lon="9.272093268696528"><ele>824.6666666666666</ele><time>2026-04-28T10:25:51.903Z</time></trkpt><trkpt lat="39.38998728415417" lon="9.27202525001786"><ele>825.0</ele><time>2026-04-28T10:25:52.903Z</time></trkpt><trkpt lat="39.39004880946735" lon="9.271962285551275"><ele>825.1666666666666</ele><time>2026-04-28T10:25:53.903Z</time></trkpt><trkpt lat="39.390106634020974" lon="9.271925802956359"><ele>825.3333333333333</ele><time>2026-04-28T10:25:54.903Z</time></trkpt><trkpt lat="39.39016957868089" lon="9.271919696815266"><ele>825.5</ele><time>2026-04-28T10:25:55.903Z</time></trkpt><trkpt lat="39.390247921529706" lon="9.271931596964816"><ele>825.6666666666666</ele><time>2026-04-28T10:25:56.903Z</time></trkpt><trkpt lat="39.39033486584841" lon="9.271931215422129"><ele>825.8333333333333</ele><time>2026-04-28T10:25:57.903Z</time></trkpt><trkpt lat="39.39042510300343" lon="9.271919101425267"><ele>826.0</ele><time>2026-04-28T10:25:58.903Z</time></trkpt><trkpt lat="39.39053391430463" lon="9.271896529112558"><ele>828.5999999999999</ele><time>2026-04-28T10:25:59.903Z</time></trkpt><trkpt lat="39.390637344689566" lon="9.27187913197974"><ele>831.2</ele><time>2026-04-28T10:26:00.904Z</time></trkpt><trkpt lat="39.390740922921125" lon="9.271871759087933"><ele>833.8</ele><time>2026-04-28T10:26:01.904Z</time></trkpt><trkpt lat="39.39083129451033" lon="9.271885763407857"><ele>836.4000000000001</ele><time>2026-04-28T10:26:02.904Z</time></trkpt><trkpt lat="39.39090758938747" lon="9.271912113950403"><ele>839.0</ele><time>2026-04-28T10:26:03.904Z</time></trkpt><trkpt lat="39.39100607024853" lon="9.271957476856425"><ele>839.0</ele><time>2026-04-28T10:26:05.904Z</time></trkpt><trkpt lat="39.391096105759665" lon="9.27196934675032"><ele>839.0</ele><time>2026-04-28T10:26:07.904Z</time></trkpt><trkpt lat="39.39121526363853" lon="9.27196790451075"><ele>839.0</ele><time>2026-04-28T10:26:09.904Z</time></trkpt><trkpt lat="39.39128351215991" lon="9.271965850524733"><ele>839.0</ele><time>2026-04-28T10:26:10.904Z</time></trkpt><trkpt lat="39.39135904941064" lon="9.271986218444694"><ele>839.0</ele><time>2026-04-28T10:26:11.904Z</time></trkpt><trkpt lat="39.391456784107135" lon="9.27202769710541"><ele>839.6</ele><time>2026-04-28T10:26:12.904Z</time></trkpt><trkpt lat="39.39156155868288" lon="9.272076889654917"><ele>840.2</ele><time>2026-04-28T10:26:13.904Z</time></trkpt><trkpt lat="39.39166927181646" lon="9.272118714208604"><ele>840.8000000000001</ele><time>2026-04-28T10:26:14.904Z</time></trkpt><trkpt lat="39.39177918423538" lon="9.272161007711151"><ele>841.4000000000001</ele><time>2026-04-28T10:26:15.904Z</time></trkpt><trkpt lat="39.39188828512326" lon="9.272181565093627"><ele>842.0</ele><time>2026-04-28T10:26:16.904Z</time></trkpt><trkpt lat="39.39199084150052" lon="9.272197899612953"><ele>842.0</ele><time>2026-04-28T10:26:17.904Z</time></trkpt><trkpt lat="39.392093287134195" lon="9.272213530822942"><ele>842.0</ele><time>2026-04-28T10:26:18.904Z</time></trkpt><trkpt lat="39.39220556498548" lon="9.272220098557987"><ele>842.0</ele><time>2026-04-28T10:26:19.904Z</time></trkpt><trkpt lat="39.39231442054822" lon="9.27221670207984"><ele>842.0</ele><time>2026-04-28T10:26:20.904Z</time></trkpt><trkpt lat="39.392408610510145" lon="9.272214428849818"><ele>842.0</ele><time>2026-04-28T10:26:21.902Z</time></trkpt><trkpt lat="39.392492611924105" lon="9.272225954937278"><ele>842.1428571428572</ele><time>2026-04-28T10:26:22.902Z</time></trkpt><trkpt lat="39.39258256611826" lon="9.27224856338896"><ele>842.2857142857143</ele><time>2026-04-28T10:26:23.902Z</time></trkpt><trkpt lat="39.39265203940629" lon="9.272265516508044"><ele>842.4285714285714</ele><time>2026-04-28T10:26:24.902Z</time></trkpt><trkpt lat="39.39272006032174" lon="9.272252185213862"><ele>842.5714285714287</ele><time>2026-04-28T10:26:25.902Z</time></trkpt><trkpt lat="39.39278490264801" lon="9.272277561521637"><ele>842.7142857142857</ele><time>2026-04-28T10:26:26.902Z</time></trkpt><trkpt lat="39.3928521512497" lon="9.272280716545685"><ele>842.8571428571429</ele><time>2026-04-28T10:26:27.902Z</time></trkpt><trkpt lat="39.39292949669726" lon="9.272266915343984"><ele>843.0</ele><time>2026-04-28T10:26:28.902Z</time></trkpt><trkpt lat="39.39301188439968" lon="9.272276199311106"><ele>843.8</ele><time>2026-04-28T10:26:29.902Z</time></trkpt><trkpt lat="39.39310270369034" lon="9.272297952132725"><ele>844.5999999999999</ele><time>2026-04-28T10:26:30.902Z</time></trkpt><trkpt lat="39.39318698492097" lon="9.272328592395397"><ele>845.4000000000001</ele><time>2026-04-28T10:26:31.902Z</time></trkpt><trkpt lat="39.39326662654311" lon="9.272354622920501"><ele>846.2</ele><time>2026-04-28T10:26:32.902Z</time></trkpt><trkpt lat="39.393338610350185" lon="9.272364384227027"><ele>847.0</ele><time>2026-04-28T10:26:33.902Z</time></trkpt><trkpt lat="39.393472486304056" lon="9.272331591736489"><ele>846.9999999999999</ele><time>2026-04-28T10:26:35.902Z</time></trkpt><trkpt lat="39.393542860051845" lon="9.272298802937739"><ele>847.0</ele><time>2026-04-28T10:26:36.902Z</time></trkpt><trkpt lat="39.39361171135831" lon="9.272262340202166"><ele>847.0</ele><time>2026-04-28T10:26:37.902Z</time></trkpt><trkpt lat="39.393677426571685" lon="9.272231344062867"><ele>847.0</ele><time>2026-04-28T10:26:38.902Z</time></trkpt><trkpt lat="39.39373094162377" lon="9.272187445951886"><ele>846.9999999999999</ele><time>2026-04-28T10:26:39.902Z</time></trkpt><trkpt lat="39.393827186734434" lon="9.272110595122292"><ele>847.0</ele><time>2026-04-28T10:26:41.902Z</time></trkpt><trkpt lat="39.39386271929054" lon="9.27204018016285"><ele>845.0</ele><time>2026-04-28T10:26:43.902Z</time></trkpt><trkpt lat="39.39394680309089" lon="9.271946758584688"><ele>843.0</ele><time>2026-04-28T10:26:46.902Z</time></trkpt><trkpt lat="39.39405811334661" lon="9.271825844665475"><ele>841.0</ele><time>2026-04-28T10:26:48.902Z</time></trkpt><trkpt lat="39.394129892732536" lon="9.27169771455933"><ele>839.0</ele><time>2026-04-28T10:26:49.902Z</time></trkpt><trkpt lat="39.39419538541418" lon="9.271541169070963"><ele>837.0</ele><time>2026-04-28T10:26:50.902Z</time></trkpt><trkpt lat="39.39430294822145" lon="9.271375018443802"><ele>835.0</ele><time>2026-04-28T10:26:51.902Z</time></trkpt><trkpt lat="39.39443593078199" lon="9.271274475173334"><ele>833.0</ele><time>2026-04-28T10:26:52.902Z</time></trkpt><trkpt lat="39.39426601692315" lon="9.271409099625577"><ele>833.0000000000001</ele><time>2026-04-28T10:26:53.902Z</time></trkpt><trkpt lat="39.39433197501197" lon="9.27135241292328"><ele>833.0</ele><time>2026-04-28T10:26:54.902Z</time></trkpt><trkpt lat="39.39440303280692" lon="9.271300806375177"><ele>833.0</ele><time>2026-04-28T10:26:55.902Z</time></trkpt><trkpt lat="39.394465827497406" lon="9.271235398342645"><ele>833.0</ele><time>2026-04-28T10:26:56.902Z</time></trkpt><trkpt lat="39.39450734967164" lon="9.27111721550238"><ele>833.0000000000001</ele><time>2026-04-28T10:26:57.902Z</time></trkpt><trkpt lat="39.3945748745488" lon="9.271057775053402"><ele>833.0</ele><time>2026-04-28T10:26:58.902Z</time></trkpt><trkpt lat="39.394629992237356" lon="9.271009256688235"><ele>834.0</ele><time>2026-04-28T10:26:59.902Z</time></trkpt><trkpt lat="39.39471347413842" lon="9.270935770403108"><ele>835.0</ele><time>2026-04-28T10:27:01.902Z</time></trkpt><trkpt lat="39.394919736991895" lon="9.271144408146384"><ele>836.0</ele><time>2026-04-28T10:27:03.902Z</time></trkpt><trkpt lat="39.395027706427086" lon="9.271127308486703"><ele>836.0000000000001</ele><time>2026-04-28T10:27:05.902Z</time></trkpt><trkpt lat="39.39512597619819" lon="9.271100281746442"><ele>836.0</ele><time>2026-04-28T10:27:07.902Z</time></trkpt><trkpt lat="39.39523319318434" lon="9.271029330624986"><ele>836.0</ele><time>2026-04-28T10:27:09.902Z</time></trkpt><trkpt lat="39.39529971964666" lon="9.270992402010334"><ele>836.0</ele><time>2026-04-28T10:27:10.902Z</time></trkpt><trkpt lat="39.39536930677687" lon="9.270954714308878"><ele>836.0000000000001</ele><time>2026-04-28T10:27:11.902Z</time></trkpt><trkpt lat="39.39543301292271" lon="9.27091175109207"><ele>836.0</ele><time>2026-04-28T10:27:12.902Z</time></trkpt><trkpt lat="39.39549645990881" lon="9.270872404961263"><ele>836.0000000000001</ele><time>2026-04-28T10:27:13.902Z</time></trkpt><trkpt lat="39.39556492353535" lon="9.270831421117268"><ele>836.0</ele><time>2026-04-28T10:27:14.902Z</time></trkpt><trkpt lat="39.39563701036642" lon="9.270799154780864"><ele>836.0</ele><time>2026-04-28T10:27:15.903Z</time></trkpt><trkpt lat="39.39570552154964" lon="9.270783508684039"><ele>836.0</ele><time>2026-04-28T10:27:16.903Z</time></trkpt><trkpt lat="39.39578464641282" lon="9.270757778245677"><ele>836.0000000000001</ele><time>2026-04-28T10:27:17.903Z</time></trkpt><trkpt lat="39.39589729690185" lon="9.270727443957373"><ele>836.0</ele><time>2026-04-28T10:27:19.903Z</time></trkpt><trkpt lat="39.396016579712466" lon="9.270687020627289"><ele>836.0000000000001</ele><time>2026-04-28T10:27:21.903Z</time></trkpt><trkpt lat="39.39610042202992" lon="9.27068448511482"><ele>836.0</ele><time>2026-04-28T10:27:22.903Z</time></trkpt><trkpt lat="39.396164706085166" lon="9.270728220254455"><ele>836.0</ele><time>2026-04-28T10:27:23.903Z</time></trkpt><trkpt lat="39.396235687168826" lon="9.270775432043873"><ele>836.0</ele><time>2026-04-28T10:27:24.903Z</time></trkpt><trkpt lat="39.396290929795306" lon="9.270831225206452"><ele>836.0000000000001</ele><time>2026-04-28T10:27:25.903Z</time></trkpt><trkpt lat="39.39635691590388" lon="9.270907544901334"><ele>836.0</ele><time>2026-04-28T10:27:26.903Z</time></trkpt><trkpt lat="39.396417448548796" lon="9.270981246966963"><ele>835.8333333333334</ele><time>2026-04-28T10:27:27.903Z</time></trkpt><trkpt lat="39.396461379658575" lon="9.271058976045921"><ele>835.6666666666667</ele><time>2026-04-28T10:27:28.903Z</time></trkpt><trkpt lat="39.396505159965606" lon="9.271144820653312"><ele>835.5</ele><time>2026-04-28T10:27:29.903Z</time></trkpt><trkpt lat="39.39655944009672" lon="9.271237181452975"><ele>835.3333333333333</ele><time>2026-04-28T10:27:30.903Z</time></trkpt><trkpt lat="39.396612816879696" lon="9.271317305093849"><ele>835.1666666666666</ele><time>2026-04-28T10:27:31.903Z</time></trkpt><trkpt lat="39.39664853829949" lon="9.27139670318781"><ele>835.0</ele><time>2026-04-28T10:27:32.903Z</time></trkpt><trkpt lat="39.396681482690916" lon="9.271472360688263"><ele>835.0000000000001</ele><time>2026-04-28T10:27:33.903Z</time></trkpt><trkpt lat="39.3967180746392" lon="9.27154651882699"><ele>835.0</ele><time>2026-04-28T10:27:34.903Z</time></trkpt><trkpt lat="39.39677661815434" lon="9.27160299760192"><ele>835.0</ele><time>2026-04-28T10:27:35.903Z</time></trkpt><trkpt lat="39.39683012176102" lon="9.271651156306616"><ele>835.0</ele><time>2026-04-28T10:27:36.903Z</time></trkpt><trkpt lat="39.39688280575544" lon="9.271703847649361"><ele>835.0</ele><time>2026-04-28T10:27:37.903Z</time></trkpt><trkpt lat="39.39691501096869" lon="9.27178306087808"><ele>835.0000000000001</ele><time>2026-04-28T10:27:38.903Z</time></trkpt><trkpt lat="39.39693819861257" lon="9.271865460999535"><ele>835.0</ele><time>2026-04-28T10:27:39.903Z</time></trkpt><trkpt lat="39.39695975616828" lon="9.271956079913032"><ele>835.0</ele><time>2026-04-28T10:27:40.903Z</time></trkpt><trkpt lat="39.397006731772905" lon="9.272044388370535"><ele>835.0</ele><time>2026-04-28T10:27:41.903Z</time></trkpt><trkpt lat="39.397063371745034" lon="9.272133361854898"><ele>835.0</ele><time>2026-04-28T10:27:42.903Z</time></trkpt><trkpt lat="39.39713271594407" lon="9.272223517697897"><ele>835.0</ele><time>2026-04-28T10:27:43.903Z</time></trkpt><trkpt lat="39.397198479412545" lon="9.272319962939479"><ele>835.0</ele><time>2026-04-28T10:27:44.903Z</time></trkpt><trkpt lat="39.39726454703507" lon="9.272402501608608"><ele>835.0</ele><time>2026-04-28T10:27:45.903Z</time></trkpt><trkpt lat="39.39733701610768" lon="9.272487804380702"><ele>835.0</ele><time>2026-04-28T10:27:46.903Z</time></trkpt><trkpt lat="39.397408472944115" lon="9.27258234735392"><ele>835.0</ele><time>2026-04-28T10:27:47.903Z</time></trkpt><trkpt lat="39.39747809146755" lon="9.272681886751776"><ele>835.0</ele><time>2026-04-28T10:27:48.903Z</time></trkpt><trkpt lat="39.39754381990419" lon="9.272770415096087"><ele>835.0</ele><time>2026-04-28T10:27:49.903Z</time></trkpt><trkpt lat="39.39759850974714" lon="9.272842314197353"><ele>835.0000000000001</ele><time>2026-04-28T10:27:50.903Z</time></trkpt><trkpt lat="39.39765761920423" lon="9.272901759070555"><ele>835.0</ele><time>2026-04-28T10:27:51.903Z</time></trkpt><trkpt lat="39.39772019525297" lon="9.272956227363261"><ele>835.0</ele><time>2026-04-28T10:27:52.903Z</time></trkpt><trkpt lat="39.397789115548804" lon="9.27300385156194"><ele>835.0</ele><time>2026-04-28T10:27:53.903Z</time></trkpt><trkpt lat="39.39785749540358" lon="9.273040541994158"><ele>835.0</ele><time>2026-04-28T10:27:54.903Z</time></trkpt><trkpt lat="39.39792532455683" lon="9.273078011924122"><ele>835.0000000000001</ele><time>2026-04-28T10:27:55.903Z</time></trkpt><trkpt lat="39.39798793780222" lon="9.2731091231706"><ele>835.0</ele><time>2026-04-28T10:27:56.903Z</time></trkpt><trkpt lat="39.39805043975663" lon="9.273128774512438"><ele>834.8333333333333</ele><time>2026-04-28T10:27:57.903Z</time></trkpt><trkpt lat="39.39811814475012" lon="9.273134578138357"><ele>834.6666666666666</ele><time>2026-04-28T10:27:58.903Z</time></trkpt><trkpt lat="39.398195079785005" lon="9.273126186847861"><ele>834.5</ele><time>2026-04-28T10:27:59.903Z</time></trkpt><trkpt lat="39.398262886880595" lon="9.273114816108327"><ele>834.3333333333333</ele><time>2026-04-28T10:28:00.903Z</time></trkpt><trkpt lat="39.39836055070606" lon="9.27305997247859"><ele>834.1666666666666</ele><time>2026-04-28T10:28:02.903Z</time></trkpt><trkpt lat="39.39846180932937" lon="9.273010158834186"><ele>834.0</ele><time>2026-04-28T10:28:04.903Z</time></trkpt><trkpt lat="39.39856685098565" lon="9.273012645704565"><ele>834.0</ele><time>2026-04-28T10:28:06.903Z</time></trkpt><trkpt lat="39.398658794532984" lon="9.273030283396626"><ele>834.0</ele><time>2026-04-28T10:28:08.903Z</time></trkpt><trkpt lat="39.39878383922295" lon="9.273039684160723"><ele>834.0</ele><time>2026-04-28T10:28:10.904Z</time></trkpt><trkpt lat="39.398850720379926" lon="9.273056343913309"><ele>834.0</ele><time>2026-04-28T10:28:11.904Z</time></trkpt><trkpt lat="39.39891399314215" lon="9.27307398289463"><ele>834.0</ele><time>2026-04-28T10:28:12.904Z</time></trkpt><trkpt lat="39.399007359884806" lon="9.273108801017523"><ele>834.0</ele><time>2026-04-28T10:28:14.904Z</time></trkpt><trkpt lat="39.39912710568177" lon="9.273140019910693"><ele>834.1428571428572</ele><time>2026-04-28T10:28:16.904Z</time></trkpt><trkpt lat="39.39919781108891" lon="9.273154254408285"><ele>834.2857142857142</ele><time>2026-04-28T10:28:17.904Z</time></trkpt><trkpt lat="39.39927442219881" lon="9.273178392996005"><ele>834.4285714285714</ele><time>2026-04-28T10:28:18.904Z</time></trkpt><trkpt lat="39.39934450321794" lon="9.273206373384392"><ele>834.5714285714287</ele><time>2026-04-28T10:28:19.904Z</time></trkpt><trkpt lat="39.399411472438146" lon="9.273221982743939"><ele>834.7142857142858</ele><time>2026-04-28T10:28:20.904Z</time></trkpt><trkpt lat="39.39948989172818" lon="9.273233668156356"><ele>834.8571428571429</ele><time>2026-04-28T10:28:21.904Z</time></trkpt><trkpt lat="39.39956254896733" lon="9.273241336061263"><ele>835.0</ele><time>2026-04-28T10:28:22.904Z</time></trkpt><trkpt lat="39.39963153566661" lon="9.27324228870324"><ele>834.6666666666666</ele><time>2026-04-28T10:28:23.904Z</time></trkpt><trkpt lat="39.399733182945866" lon="9.273215676191338"><ele>834.3333333333333</ele><time>2026-04-28T10:28:25.904Z</time></trkpt><trkpt lat="39.39980151970506" lon="9.273217592557652"><ele>834.0</ele><time>2026-04-28T10:28:26.904Z</time></trkpt><trkpt lat="39.39991043539708" lon="9.2732609759967"><ele>833.6666666666667</ele><time>2026-04-28T10:28:28.902Z</time></trkpt><trkpt lat="39.399971252373724" lon="9.273290539280415"><ele>833.3333333333334</ele><time>2026-04-28T10:28:29.902Z</time></trkpt><trkpt lat="39.40003876982604" lon="9.273310336533546"><ele>833.0</ele><time>2026-04-28T10:28:30.902Z</time></trkpt><trkpt lat="39.40010543297773" lon="9.273322444858433"><ele>833.0000000000001</ele><time>2026-04-28T10:28:31.902Z</time></trkpt><trkpt lat="39.400167341411375" lon="9.273341086793955"><ele>833.0</ele><time>2026-04-28T10:28:32.902Z</time></trkpt><trkpt lat="39.400234662872585" lon="9.273333249647047"><ele>833.0</ele><time>2026-04-28T10:28:33.901Z</time></trkpt><trkpt lat="39.400299781301435" lon="9.27332796999669"><ele>833.0</ele><time>2026-04-28T10:28:34.902Z</time></trkpt><trkpt lat="39.400383690188114" lon="9.273374059900078"><ele>833.0000000000001</ele><time>2026-04-28T10:28:36.902Z</time></trkpt><trkpt lat="39.400454236293925" lon="9.273409968043191"><ele>833.0</ele><time>2026-04-28T10:28:38.902Z</time></trkpt><trkpt lat="39.400558775870145" lon="9.273482554533642"><ele>832.5000000000001</ele><time>2026-04-28T10:28:40.902Z</time></trkpt><trkpt lat="39.400621756805904" lon="9.273528977727892"><ele>832.0</ele><time>2026-04-28T10:28:41.902Z</time></trkpt><trkpt lat="39.40069270018043" lon="9.273579728082353"><ele>831.5</ele><time>2026-04-28T10:28:42.902Z</time></trkpt><trkpt lat="39.40075572632033" lon="9.273642741797849"><ele>831.0</ele><time>2026-04-28T10:28:43.902Z</time></trkpt><trkpt lat="39.40082142324176" lon="9.273706986660109"><ele>830.5000000000001</ele><time>2026-04-28T10:28:44.902Z</time></trkpt><trkpt lat="39.40088931457788" lon="9.273769590334348"><ele>830.0</ele><time>2026-04-28T10:28:45.902Z</time></trkpt><trkpt lat="39.40096129221693" lon="9.27382313629719"><ele>830.0000000000001</ele><time>2026-04-28T10:28:46.902Z</time></trkpt><trkpt lat="39.40102526046802" lon="9.273848454114594"><ele>830.0</ele><time>2026-04-28T10:28:47.902Z</time></trkpt><trkpt lat="39.40109347320525" lon="9.273863772810998"><ele>830.0</ele><time>2026-04-28T10:28:48.902Z</time></trkpt><trkpt lat="39.40120556226046" lon="9.273844289133068"><ele>830.0</ele><time>2026-04-28T10:28:50.902Z</time></trkpt><trkpt lat="39.40131399680691" lon="9.273807883926303"><ele>830.0000000000001</ele><time>2026-04-28T10:28:52.902Z</time></trkpt><trkpt lat="39.40138479981591" lon="9.27377920814927"><ele>830.0</ele><time>2026-04-28T10:28:53.902Z</time></trkpt><trkpt lat="39.40145317075375" lon="9.273740512174852"><ele>830.3333333333334</ele><time>2026-04-28T10:28:54.902Z</time></trkpt><trkpt lat="39.401536882420075" lon="9.27370056674182"><ele>830.6666666666667</ele><time>2026-04-28T10:28:55.902Z</time></trkpt><trkpt lat="39.401625326389244" lon="9.273663116543148"><ele>831.0</ele><time>2026-04-28T10:28:56.902Z</time></trkpt><trkpt lat="39.40171151978348" lon="9.27363419992256"><ele>831.3333333333333</ele><time>2026-04-28T10:28:57.902Z</time></trkpt><trkpt lat="39.40180018162942" lon="9.273619312394958"><ele>831.6666666666666</ele><time>2026-04-28T10:28:58.902Z</time></trkpt><trkpt lat="39.40188670038662" lon="9.273605713857611"><ele>832.0</ele><time>2026-04-28T10:28:59.902Z</time></trkpt><trkpt lat="39.40197290871691" lon="9.273579868830023"><ele>832.0</ele><time>2026-04-28T10:29:00.902Z</time></trkpt><trkpt lat="39.4020436622282" lon="9.273556791487898"><ele>832.0</ele><time>2026-04-28T10:29:01.902Z</time></trkpt><trkpt lat="39.402115120033926" lon="9.273539413556813"><ele>832.0</ele><time>2026-04-28T10:29:02.902Z</time></trkpt><trkpt lat="39.402192528289014" lon="9.273519823601113"><ele>832.0</ele><time>2026-04-28T10:29:03.902Z</time></trkpt><trkpt lat="39.40225957586419" lon="9.273506482806718"><ele>832.0</ele><time>2026-04-28T10:29:04.902Z</time></trkpt><trkpt lat="39.40233304726275" lon="9.273487890275835"><ele>832.0</ele><time>2026-04-28T10:29:05.902Z</time></trkpt><trkpt lat="39.40239987867654" lon="9.273453489822689"><ele>832.0</ele><time>2026-04-28T10:29:06.903Z</time></trkpt><trkpt lat="39.402472443605035" lon="9.273397084539788"><ele>832.9999999999999</ele><time>2026-04-28T10:29:07.903Z</time></trkpt><trkpt lat="39.40253685353087" lon="9.273340208019835"><ele>834.0</ele><time>2026-04-28T10:29:08.903Z</time></trkpt><trkpt lat="39.402607069340405" lon="9.273274555911078"><ele>835.0</ele><time>2026-04-28T10:29:09.903Z</time></trkpt><trkpt lat="39.402677420273626" lon="9.273199420918061"><ele>836.0</ele><time>2026-04-28T10:29:10.903Z</time></trkpt><trkpt lat="39.40274048099198" lon="9.273132307391048"><ele>836.9999999999999</ele><time>2026-04-28T10:29:11.903Z</time></trkpt><trkpt lat="39.402789802132524" lon="9.273058407517913"><ele>838.0</ele><time>2026-04-28T10:29:12.903Z</time></trkpt><trkpt lat="39.40282679302882" lon="9.272977994302737"><ele>838.0</ele><time>2026-04-28T10:29:13.903Z</time></trkpt><trkpt lat="39.402885715109825" lon="9.272899554153224"><ele>838.0</ele><time>2026-04-28T10:29:15.903Z</time></trkpt><trkpt lat="39.40294878954707" lon="9.272899048742357"><ele>838.0</ele><time>2026-04-28T10:29:17.903Z</time></trkpt><trkpt lat="39.402998219805816" lon="9.272982951411056"><ele>838.0</ele><time>2026-04-28T10:29:19.903Z</time></trkpt><trkpt lat="39.40305024690016" lon="9.273100099595542"><ele>838.0</ele><time>2026-04-28T10:29:21.903Z</time></trkpt><trkpt lat="39.40313862411806" lon="9.273201511463169"><ele>839.5714285714286</ele><time>2026-04-28T10:29:23.903Z</time></trkpt><trkpt lat="39.40319412006957" lon="9.273249114184141"><ele>841.1428571428571</ele><time>2026-04-28T10:29:24.903Z</time></trkpt><trkpt lat="39.40325882710078" lon="9.273304501759975"><ele>842.7142857142858</ele><time>2026-04-28T10:29:25.903Z</time></trkpt><trkpt lat="39.40331444717548" lon="9.273349200115742"><ele>844.2857142857142</ele><time>2026-04-28T10:29:26.903Z</time></trkpt><trkpt lat="39.40336937747787" lon="9.273396587992552"><ele>845.8571428571429</ele><time>2026-04-28T10:29:27.903Z</time></trkpt><trkpt lat="39.403433780130946" lon="9.273473074663844"><ele>847.4285714285714</ele><time>2026-04-28T10:29:29.903Z</time></trkpt><trkpt lat="39.40347780491216" lon="9.273534187033036"><ele>849.0</ele><time>2026-04-28T10:29:32.903Z</time></trkpt><trkpt lat="39.40355363243485" lon="9.273510095712107"><ele>849.0000000000001</ele><time>2026-04-28T10:32:24.903Z</time></trkpt><trkpt lat="39.403625680474846" lon="9.273472874730961"><ele>849.0</ele><time>2026-04-28T10:32:26.903Z</time></trkpt><trkpt lat="39.403693427804726" lon="9.273403008431728"><ele>849.0</ele><time>2026-04-28T10:32:29.903Z</time></trkpt><trkpt lat="39.40375019168321" lon="9.273354917859564"><ele>849.0</ele><time>2026-04-28T10:32:32.904Z</time></trkpt><trkpt lat="39.40383297623123" lon="9.273357885197754"><ele>849.0</ele><time>2026-04-28T10:32:36.904Z</time></trkpt><trkpt lat="39.40389286560107" lon="9.273390312712248"><ele>849.0000000000001</ele><time>2026-04-28T10:32:39.902Z</time></trkpt><trkpt lat="39.40395221405624" lon="9.273436614955765"><ele>849.0</ele><time>2026-04-28T10:32:43.902Z</time></trkpt><trkpt lat="39.40402381020919" lon="9.273483504009668"><ele>847.1428571428572</ele><time>2026-04-28T10:32:47.902Z</time></trkpt><trkpt lat="39.4040748196637" lon="9.273539425309929"><ele>845.2857142857143</ele><time>2026-04-28T10:32:51.903Z</time></trkpt><trkpt lat="39.40414495859256" lon="9.273576015278932"><ele>843.4285714285714</ele><time>2026-04-28T10:32:55.902Z</time></trkpt><trkpt lat="39.404208711780896" lon="9.27361136758107"><ele>841.5714285714287</ele><time>2026-04-28T10:33:00.902Z</time></trkpt><trkpt lat="39.40427498448014" lon="9.273611210775067"><ele>839.7142857142857</ele><time>2026-04-28T10:33:05.902Z</time></trkpt><trkpt lat="39.40433837552109" lon="9.273613683597267"><ele>837.8571428571429</ele><time>2026-04-28T10:33:10.902Z</time></trkpt><trkpt lat="39.40441567011068" lon="9.273619634478022"><ele>836.0</ele><time>2026-04-28T10:33:17.902Z</time></trkpt><trkpt lat="39.40449567423448" lon="9.273621449073913"><ele>836.0000000000001</ele><time>2026-04-28T10:33:21.902Z</time></trkpt><trkpt lat="39.4045795508213" lon="9.273636874779513"><ele>836.0</ele><time>2026-04-28T10:33:24.902Z</time></trkpt><trkpt lat="39.40465308240688" lon="9.273670229495425"><ele>836.0</ele><time>2026-04-28T10:33:26.902Z</time></trkpt><trkpt lat="39.40473579150908" lon="9.273714045844644"><ele>836.0</ele><time>2026-04-28T10:33:29.902Z</time></trkpt><trkpt lat="39.40480382678712" lon="9.273745176224747"><ele>836.0000000000001</ele><time>2026-04-28T10:33:31.903Z</time></trkpt><trkpt lat="39.404890533302364" lon="9.273778818145086"><ele>836.0</ele><time>2026-04-28T10:33:33.903Z</time></trkpt><trkpt lat="39.404985748270434" lon="9.273801628230013"><ele>832.4</ele><time>2026-04-28T10:33:35.903Z</time></trkpt><trkpt lat="39.405074630724705" lon="9.273825783590373"><ele>828.8</ele><time>2026-04-28T10:33:37.903Z</time></trkpt><trkpt lat="39.40518715914174" lon="9.273870912804828"><ele>825.1999999999999</ele><time>2026-04-28T10:33:39.903Z</time></trkpt><trkpt lat="39.40524821419823" lon="9.273910644140443"><ele>821.5999999999999</ele><time>2026-04-28T10:33:40.903Z</time></trkpt><trkpt lat="39.40536505116957" lon="9.273984387510092"><ele>818.0</ele><time>2026-04-28T10:33:42.903Z</time></trkpt><trkpt lat="39.4054241738954" lon="9.274018008374007"><ele>818.0000000000001</ele><time>2026-04-28T10:33:43.903Z</time></trkpt><trkpt lat="39.40548740613002" lon="9.274052564407466"><ele>818.0</ele><time>2026-04-28T10:33:44.903Z</time></trkpt><trkpt lat="39.40555225142729" lon="9.27408902798687"><ele>818.0</ele><time>2026-04-28T10:33:45.903Z</time></trkpt><trkpt lat="39.405619724756704" lon="9.274131389480926"><ele>818.0</ele><time>2026-04-28T10:33:46.903Z</time></trkpt><trkpt lat="39.40568014675004" lon="9.274175001113543"><ele>818.0000000000001</ele><time>2026-04-28T10:33:47.903Z</time></trkpt><trkpt lat="39.405754179393796" lon="9.274222019046201"><ele>818.0</ele><time>2026-04-28T10:33:48.903Z</time></trkpt><trkpt lat="39.40583108312872" lon="9.274272528346946"><ele>817.3333333333334</ele><time>2026-04-28T10:33:49.903Z</time></trkpt><trkpt lat="39.40590130090324" lon="9.274330293793668"><ele>816.6666666666667</ele><time>2026-04-28T10:33:50.903Z</time></trkpt><trkpt lat="39.40597048236497" lon="9.274393399834192"><ele>816.0</ele><time>2026-04-28T10:33:51.903Z</time></trkpt><trkpt lat="39.4060327877601" lon="9.274451984976128"><ele>815.3333333333333</ele><time>2026-04-28T10:33:52.903Z</time></trkpt><trkpt lat="39.40609796042133" lon="9.274501080796876"><ele>814.6666666666666</ele><time>2026-04-28T10:33:53.903Z</time></trkpt><trkpt lat="39.40615995172083" lon="9.27453071826898"><ele>814.0</ele><time>2026-04-28T10:33:54.903Z</time></trkpt><trkpt lat="39.406281468194656" lon="9.274533629022924"><ele>814.3333333333333</ele><time>2026-04-28T10:33:56.903Z</time></trkpt><trkpt lat="39.40639986049826" lon="9.274540869251807"><ele>814.6666666666666</ele><time>2026-04-28T10:33:58.903Z</time></trkpt><trkpt lat="39.40646791595559" lon="9.274554647415744"><ele>815.0</ele><time>2026-04-28T10:33:59.903Z</time></trkpt><trkpt lat="39.40653961553945" lon="9.274574362318127"><ele>815.3333333333333</ele><time>2026-04-28T10:34:00.903Z</time></trkpt><trkpt lat="39.4066038457192" lon="9.27461600769493"><ele>815.6666666666666</ele><time>2026-04-28T10:34:01.903Z</time></trkpt><trkpt lat="39.4066611425838" lon="9.274665416634523"><ele>816.0</ele><time>2026-04-28T10:34:02.903Z</time></trkpt><trkpt lat="39.406743209685395" lon="9.27476667787454"><ele>816.5</ele><time>2026-04-28T10:34:04.903Z</time></trkpt><trkpt lat="39.40680684379662" lon="9.27481738307567"><ele>817.0</ele><time>2026-04-28T10:34:07.903Z</time></trkpt><trkpt lat="39.40689456846141" lon="9.27483560407774"><ele>817.5</ele><time>2026-04-28T10:34:36.904Z</time></trkpt><trkpt lat="39.40697488911355" lon="9.274862035144114"><ele>818.0</ele><time>2026-04-28T10:34:38.904Z</time></trkpt><trkpt lat="39.407062688944684" lon="9.274886957855754"><ele>818.5</ele><time>2026-04-28T10:34:40.904Z</time></trkpt><trkpt lat="39.40715058197838" lon="9.274910002664958"><ele>819.0</ele><time>2026-04-28T10:34:42.904Z</time></trkpt><trkpt lat="39.407231985314645" lon="9.274938283682399"><ele>819.3333333333334</ele><time>2026-04-28T10:34:44.904Z</time></trkpt><trkpt lat="39.40730133222531" lon="9.274982192896267"><ele>819.6666666666667</ele><time>2026-04-28T10:34:46.902Z</time></trkpt><trkpt lat="39.40735938694194" lon="9.275039496939916"><ele>820.0</ele><time>2026-04-28T10:34:48.902Z</time></trkpt><trkpt lat="39.40740165854073" lon="9.275109027793588"><ele>820.3333333333334</ele><time>2026-04-28T10:34:50.902Z</time></trkpt><trkpt lat="39.40746874764907" lon="9.275182140885354"><ele>820.6666666666667</ele><time>2026-04-28T10:34:53.902Z</time></trkpt><trkpt lat="39.407542160564184" lon="9.275217904823705"><ele>821.0</ele><time>2026-04-28T10:34:56.903Z</time></trkpt><trkpt lat="39.40762470582179" lon="9.275248324657934"><ele>821.0</ele><time>2026-04-28T10:34:59.903Z</time></trkpt><trkpt lat="39.40768856469364" lon="9.275270800779117"><ele>821.0</ele><time>2026-04-28T10:35:01.903Z</time></trkpt><trkpt lat="39.40776506982132" lon="9.275264653635748"><ele>821.0</ele><time>2026-04-28T10:35:03.903Z</time></trkpt><trkpt lat="39.407860892763544" lon="9.2752440509547"><ele>821.0</ele><time>2026-04-28T10:35:05.903Z</time></trkpt><trkpt lat="39.407964554194486" lon="9.275214199775322"><ele>821.0</ele><time>2026-04-28T10:35:07.903Z</time></trkpt><trkpt lat="39.4080698679068" lon="9.275205824191517"><ele>820.3333333333334</ele><time>2026-04-28T10:35:09.903Z</time></trkpt><trkpt lat="39.40818180815362" lon="9.275200636084106"><ele>819.6666666666667</ele><time>2026-04-28T10:35:11.903Z</time></trkpt><trkpt lat="39.40824927891826" lon="9.275187091871235"><ele>819.0</ele><time>2026-04-28T10:35:12.903Z</time></trkpt><trkpt lat="39.408318379332655" lon="9.27518606540692"><ele>818.3333333333333</ele><time>2026-04-28T10:35:13.903Z</time></trkpt><trkpt lat="39.40838443506589" lon="9.275197207286977"><ele>817.6666666666666</ele><time>2026-04-28T10:35:14.903Z</time></trkpt><trkpt lat="39.40846582476467" lon="9.275231898957179"><ele>817.0</ele><time>2026-04-28T10:35:15.903Z</time></trkpt><trkpt lat="39.40854450418973" lon="9.275275314429345"><ele>817.0</ele><time>2026-04-28T10:35:16.903Z</time></trkpt><trkpt lat="39.40861883846967" lon="9.275331779703155"><ele>817.0</ele><time>2026-04-28T10:35:17.903Z</time></trkpt><trkpt lat="39.40869481402146" lon="9.275394805188933"><ele>817.0</ele><time>2026-04-28T10:35:18.903Z</time></trkpt><trkpt lat="39.40877136421523" lon="9.275468842353872"><ele>817.0</ele><time>2026-04-28T10:35:19.903Z</time></trkpt><trkpt lat="39.40883976881081" lon="9.275546204405122"><ele>817.0</ele><time>2026-04-28T10:35:20.903Z</time></trkpt><trkpt lat="39.40890409324726" lon="9.275629177950021"><ele>817.1666666666666</ele><time>2026-04-28T10:35:21.903Z</time></trkpt><trkpt lat="39.40896563372607" lon="9.275711893291048"><ele>817.3333333333333</ele><time>2026-04-28T10:35:22.903Z</time></trkpt><trkpt lat="39.40901908109902" lon="9.275802128700093"><ele>817.5</ele><time>2026-04-28T10:35:23.903Z</time></trkpt><trkpt lat="39.40907052165556" lon="9.275892541331954"><ele>817.6666666666667</ele><time>2026-04-28T10:35:24.903Z</time></trkpt><trkpt lat="39.409117261812106" lon="9.275968502080708"><ele>817.8333333333334</ele><time>2026-04-28T10:35:25.903Z</time></trkpt><trkpt lat="39.40916498659638" lon="9.276042340775088"><ele>818.0</ele><time>2026-04-28T10:35:26.903Z</time></trkpt><trkpt lat="39.40920520707309" lon="9.2761074164588"><ele>818.0000000000001</ele><time>2026-04-28T10:35:27.903Z</time></trkpt><trkpt lat="39.40924214353542" lon="9.276184420543853"><ele>818.0</ele><time>2026-04-28T10:35:28.903Z</time></trkpt><trkpt lat="39.409280843065" lon="9.27626279312065"><ele>818.0</ele><time>2026-04-28T10:35:29.903Z</time></trkpt><trkpt lat="39.40932629147761" lon="9.276322466978781"><ele>818.0</ele><time>2026-04-28T10:35:30.903Z</time></trkpt><trkpt lat="39.409387254679984" lon="9.276403053526913"><ele>818.0000000000001</ele><time>2026-04-28T10:35:31.903Z</time></trkpt><trkpt lat="39.409463487406114" lon="9.276480855853558"><ele>818.0</ele><time>2026-04-28T10:35:32.903Z</time></trkpt><trkpt lat="39.40952499862428" lon="9.2765557083656"><ele>817.8571428571428</ele><time>2026-04-28T10:35:33.903Z</time></trkpt><trkpt lat="39.4095884575222" lon="9.276635875307843"><ele>817.7142857142858</ele><time>2026-04-28T10:35:34.904Z</time></trkpt><trkpt lat="39.40964104897972" lon="9.276709335909601"><ele>817.5714285714286</ele><time>2026-04-28T10:35:35.904Z</time></trkpt><trkpt lat="39.40969325165303" lon="9.276765097568262"><ele>817.4285714285713</ele><time>2026-04-28T10:35:36.904Z</time></trkpt><trkpt lat="39.40974457987537" lon="9.276813255964074"><ele>817.2857142857142</ele><time>2026-04-28T10:35:37.904Z</time></trkpt><trkpt lat="39.40978779933075" lon="9.276873569283039"><ele>817.1428571428571</ele><time>2026-04-28T10:35:38.904Z</time></trkpt><trkpt lat="39.409842189885886" lon="9.276951704819837"><ele>817.0</ele><time>2026-04-28T10:35:39.904Z</time></trkpt><trkpt lat="39.40989769110269" lon="9.2770011887924"><ele>817.2</ele><time>2026-04-28T10:35:40.904Z</time></trkpt><trkpt lat="39.40997988862245" lon="9.277103266885096"><ele>817.4000000000001</ele><time>2026-04-28T10:35:42.904Z</time></trkpt><trkpt lat="39.410021674361346" lon="9.277251402598916"><ele>817.5999999999999</ele><time>2026-04-28T10:35:44.904Z</time></trkpt><trkpt lat="39.41002676759915" lon="9.27734418131572"><ele>817.8</ele><time>2026-04-28T10:35:45.904Z</time></trkpt><trkpt lat="39.41004155633859" lon="9.277503570418883"><ele>818.0</ele><time>2026-04-28T10:35:47.904Z</time></trkpt><trkpt lat="39.41008684281366" lon="9.27761915996614"><ele>818.0</ele><time>2026-04-28T10:35:49.904Z</time></trkpt><trkpt lat="39.410124278082776" lon="9.277774044285522"><ele>818.0</ele><time>2026-04-28T10:35:51.904Z</time></trkpt><trkpt lat="39.41014301911573" lon="9.277900052455296"><ele>818.0</ele><time>2026-04-28T10:35:53.904Z</time></trkpt><trkpt lat="39.41017796028586" lon="9.278010043402766"><ele>818.0</ele><time>2026-04-28T10:35:55.904Z</time></trkpt><trkpt lat="39.41021356660002" lon="9.278130911615438"><ele>818.0</ele><time>2026-04-28T10:35:57.904Z</time></trkpt><trkpt lat="39.4102329789034" lon="9.27821070183694"><ele>817.1666666666667</ele><time>2026-04-28T10:35:58.904Z</time></trkpt><trkpt lat="39.41027582840473" lon="9.278371659720953"><ele>816.3333333333334</ele><time>2026-04-28T10:36:00.904Z</time></trkpt><trkpt lat="39.41029719381375" lon="9.278454305939231"><ele>815.5</ele><time>2026-04-28T10:36:01.904Z</time></trkpt><trkpt lat="39.41032001430015" lon="9.278542622703403"><ele>814.6666666666667</ele><time>2026-04-28T10:36:02.904Z</time></trkpt><trkpt lat="39.41034776958288" lon="9.27862260067752"><ele>813.8333333333334</ele><time>2026-04-28T10:36:03.904Z</time></trkpt><trkpt lat="39.410388301306334" lon="9.278705456194551"><ele>813.0</ele><time>2026-04-28T10:36:04.904Z</time></trkpt><trkpt lat="39.41044135895046" lon="9.278795079034856"><ele>811.8333333333334</ele><time>2026-04-28T10:36:05.904Z</time></trkpt><trkpt lat="39.410501548570714" lon="9.278880934452673"><ele>810.6666666666667</ele><time>2026-04-28T10:36:06.904Z</time></trkpt><trkpt lat="39.41056743913233" lon="9.27896670327811"><ele>809.5</ele><time>2026-04-28T10:36:07.904Z</time></trkpt><trkpt lat="39.41063314577841" lon="9.279031609058254"><ele>808.3333333333334</ele><time>2026-04-28T10:36:08.904Z</time></trkpt><trkpt lat="39.410696169448016" lon="9.279097675644248"><ele>807.1666666666667</ele><time>2026-04-28T10:36:09.904Z</time></trkpt><trkpt lat="39.41075025660644" lon="9.279160497787563"><ele>806.0</ele><time>2026-04-28T10:36:10.904Z</time></trkpt><trkpt lat="39.41083732353721" lon="9.279266711028674"><ele>806.0</ele><time>2026-04-28T10:36:12.904Z</time></trkpt><trkpt lat="39.41092991956038" lon="9.279342309203518"><ele>806.0</ele><time>2026-04-28T10:36:14.904Z</time></trkpt><trkpt lat="39.41100340322355" lon="9.2794214801589"><ele>806.0</ele><time>2026-04-28T10:36:16.904Z</time></trkpt><trkpt lat="39.411074014415156" lon="9.279539970386926"><ele>806.0</ele><time>2026-04-28T10:36:18.904Z</time></trkpt><trkpt lat="39.41112486432648" lon="9.279677585321053"><ele>806.0</ele><time>2026-04-28T10:36:20.904Z</time></trkpt><trkpt lat="39.41116497669499" lon="9.27974320860954"><ele>805.0000000000001</ele><time>2026-04-28T10:36:21.904Z</time></trkpt><trkpt lat="39.41122568286999" lon="9.279802679588084"><ele>804.0</ele><time>2026-04-28T10:36:22.904Z</time></trkpt><trkpt lat="39.411306621626906" lon="9.279862547094094"><ele>803.0</ele><time>2026-04-28T10:36:23.904Z</time></trkpt><trkpt lat="39.41138401649251" lon="9.279923269917145"><ele>802.0</ele><time>2026-04-28T10:36:24.904Z</time></trkpt><trkpt lat="39.411441702642485" lon="9.27999304288148"><ele>801.0000000000001</ele><time>2026-04-28T10:36:25.904Z</time></trkpt><trkpt lat="39.411497771027975" lon="9.280071812448384"><ele>800.0</ele><time>2026-04-28T10:36:26.904Z</time></trkpt><trkpt lat="39.411548528135086" lon="9.280167406331048"><ele>799.8</ele><time>2026-04-28T10:36:27.905Z</time></trkpt><trkpt lat="39.41160046405056" lon="9.28027791205394"><ele>799.6</ele><time>2026-04-28T10:36:28.905Z</time></trkpt><trkpt lat="39.41164761881779" lon="9.280404460281924"><ele>799.4000000000001</ele><time>2026-04-28T10:36:29.905Z</time></trkpt><trkpt lat="39.411701736327544" lon="9.280521466874314"><ele>799.2</ele><time>2026-04-28T10:36:30.905Z</time></trkpt><trkpt lat="39.41175129021223" lon="9.280644654893921"><ele>799.0</ele><time>2026-04-28T10:36:31.905Z</time></trkpt><trkpt lat="39.411787470072646" lon="9.280742942308025"><ele>799.6666666666666</ele><time>2026-04-28T10:36:32.905Z</time></trkpt><trkpt lat="39.41181274497388" lon="9.280840428309759"><ele>800.3333333333333</ele><time>2026-04-28T10:36:33.905Z</time></trkpt><trkpt lat="39.41182777058592" lon="9.280922004513503"><ele>801.0</ele><time>2026-04-28T10:36:34.905Z</time></trkpt><trkpt lat="39.41185234398213" lon="9.281000723567974"><ele>801.6666666666667</ele><time>2026-04-28T10:36:35.905Z</time></trkpt><trkpt lat="39.411857279695845" lon="9.28117171857347"><ele>802.3333333333334</ele><time>2026-04-28T10:36:37.905Z</time></trkpt><trkpt lat="39.411934691458775" lon="9.281215131450223"><ele>803.0</ele><time>2026-04-28T10:36:38.905Z</time></trkpt><trkpt lat="39.411966547409186" lon="9.281290290342017"><ele>803.0</ele><time>2026-04-28T10:36:39.905Z</time></trkpt><trkpt lat="39.41200093622969" lon="9.281361666109351"><ele>803.0</ele><time>2026-04-28T10:36:40.905Z</time></trkpt><trkpt lat="39.41203357587779" lon="9.281434772847868"><ele>803.0</ele><time>2026-04-28T10:36:41.905Z</time></trkpt><trkpt lat="39.41210561506874" lon="9.281579924981399"><ele>803.0</ele><time>2026-04-28T10:36:43.905Z</time></trkpt><trkpt lat="39.41215852847405" lon="9.281695445108213"><ele>803.0</ele><time>2026-04-28T10:36:45.905Z</time></trkpt><trkpt lat="39.4121769749447" lon="9.281853017065023"><ele>806.5000000000001</ele><time>2026-04-28T10:36:47.905Z</time></trkpt><trkpt lat="39.41219623836093" lon="9.281934813720463"><ele>810.0</ele><time>2026-04-28T10:36:48.905Z</time></trkpt><trkpt lat="39.4122163045272" lon="9.28201431257771"><ele>813.5</ele><time>2026-04-28T10:36:49.905Z</time></trkpt><trkpt lat="39.412294559965304" lon="9.28211517108044"><ele>817.0</ele><time>2026-04-28T10:36:51.903Z</time></trkpt><trkpt lat="39.41238651574698" lon="9.282131199721935"><ele>820.5000000000001</ele><time>2026-04-28T10:36:53.903Z</time></trkpt><trkpt lat="39.41246790931025" lon="9.28216773976625"><ele>824.0</ele><time>2026-04-28T10:36:55.903Z</time></trkpt><trkpt lat="39.412540590581955" lon="9.282223230842428"><ele>824.4000000000001</ele><time>2026-04-28T10:37:03.903Z</time></trkpt><trkpt lat="39.41261249280042" lon="9.282302411543842"><ele>824.8</ele><time>2026-04-28T10:37:05.903Z</time></trkpt><trkpt lat="39.412694268870965" lon="9.282313959267524"><ele>825.2</ele><time>2026-04-28T10:37:07.903Z</time></trkpt><trkpt lat="39.41280809861267" lon="9.282293857819734"><ele>825.5999999999999</ele><time>2026-04-28T10:37:09.903Z</time></trkpt><trkpt lat="39.41291022973221" lon="9.282298694203348"><ele>826.0</ele><time>2026-04-28T10:37:11.903Z</time></trkpt><trkpt lat="39.41300249777811" lon="9.282300023986258"><ele>827.5999999999999</ele><time>2026-04-28T10:37:13.903Z</time></trkpt><trkpt lat="39.413110525811305" lon="9.282315094360413"><ele>829.2</ele><time>2026-04-28T10:37:15.903Z</time></trkpt><trkpt lat="39.413209828404234" lon="9.282336765584903"><ele>830.8</ele><time>2026-04-28T10:37:17.903Z</time></trkpt><trkpt lat="39.413290246670606" lon="9.282394779562424"><ele>832.4000000000001</ele><time>2026-04-28T10:37:19.903Z</time></trkpt><trkpt lat="39.41332611288531" lon="9.282495590934628"><ele>834.0</ele><time>2026-04-28T10:37:21.903Z</time></trkpt><trkpt lat="39.413296428846316" lon="9.282646281622231"><ele>834.0</ele><time>2026-04-28T10:37:23.903Z</time></trkpt><trkpt lat="39.413265320919855" lon="9.282732916534737"><ele>834.0</ele><time>2026-04-28T10:37:24.903Z</time></trkpt><trkpt lat="39.41323400112817" lon="9.28281823141068"><ele>834.0</ele><time>2026-04-28T10:37:25.903Z</time></trkpt><trkpt lat="39.41320465265305" lon="9.282912211634006"><ele>834.0</ele><time>2026-04-28T10:37:26.903Z</time></trkpt><trkpt lat="39.41317663424565" lon="9.283013171821453"><ele>834.0</ele><time>2026-04-28T10:37:27.903Z</time></trkpt><trkpt lat="39.41316014030833" lon="9.283109864711525"><ele>834.0</ele><time>2026-04-28T10:37:28.903Z</time></trkpt><trkpt lat="39.413139683792316" lon="9.283200698473598"><ele>834.0</ele><time>2026-04-28T10:37:29.903Z</time></trkpt><trkpt lat="39.413115226172856" lon="9.283285724666621"><ele>834.0</ele><time>2026-04-28T10:37:30.903Z</time></trkpt><trkpt lat="39.41309069702112" lon="9.283382087089004"><ele>834.0</ele><time>2026-04-28T10:37:31.903Z</time></trkpt><trkpt lat="39.413063747376945" lon="9.283479262540267"><ele>834.0</ele><time>2026-04-28T10:37:32.903Z</time></trkpt><trkpt lat="39.41303724788194" lon="9.283575910443462"><ele>834.0</ele><time>2026-04-28T10:37:33.903Z</time></trkpt><trkpt lat="39.41300930519541" lon="9.283680209348992"><ele>834.0</ele><time>2026-04-28T10:37:34.903Z</time></trkpt><trkpt lat="39.412992453111535" lon="9.283774863735912"><ele>833.8333333333334</ele><time>2026-04-28T10:37:35.903Z</time></trkpt><trkpt lat="39.41296593302654" lon="9.2838704706576"><ele>833.6666666666667</ele><time>2026-04-28T10:37:36.903Z</time></trkpt><trkpt lat="39.412937831979576" lon="9.283962244412212"><ele>833.5</ele><time>2026-04-28T10:37:37.903Z</time></trkpt><trkpt lat="39.41290375135812" lon="9.284051324837797"><ele>833.3333333333334</ele><time>2026-04-28T10:37:38.903Z</time></trkpt><trkpt lat="39.41287901867919" lon="9.284142212599274"><ele>833.1666666666667</ele><time>2026-04-28T10:37:39.903Z</time></trkpt><trkpt lat="39.41285111672746" lon="9.284239996291118"><ele>833.0</ele><time>2026-04-28T10:37:40.903Z</time></trkpt><trkpt lat="39.41281983407254" lon="9.28433037274219"><ele>833.0</ele><time>2026-04-28T10:37:41.903Z</time></trkpt><trkpt lat="39.412750441040934" lon="9.2844469930631"><ele>833.0</ele><time>2026-04-28T10:37:43.903Z</time></trkpt><trkpt lat="39.4126663242125" lon="9.284530621248466"><ele>833.0</ele><time>2026-04-28T10:37:45.904Z</time></trkpt><trkpt lat="39.41261172069696" lon="9.284591754624483"><ele>833.0</ele><time>2026-04-28T10:37:46.904Z</time></trkpt><trkpt lat="39.41252494638742" lon="9.284707571856217"><ele>833.0</ele><time>2026-04-28T10:37:48.904Z</time></trkpt><trkpt lat="39.412475375826226" lon="9.284771765195497"><ele>833.6666666666667</ele><time>2026-04-28T10:37:49.904Z</time></trkpt><trkpt lat="39.412426488749745" lon="9.28482328702023"><ele>834.3333333333334</ele><time>2026-04-28T10:37:50.904Z</time></trkpt><trkpt lat="39.41237923117702" lon="9.284884237003466"><ele>835.0</ele><time>2026-04-28T10:37:51.904Z</time></trkpt><trkpt lat="39.412340175581484" lon="9.284954952716802"><ele>835.6666666666667</ele><time>2026-04-28T10:37:52.904Z</time></trkpt><trkpt lat="39.41232058904554" lon="9.285033668022114"><ele>836.3333333333334</ele><time>2026-04-28T10:37:53.904Z</time></trkpt><trkpt lat="39.41224017986792" lon="9.285170918509573"><ele>837.0</ele><time>2026-04-28T10:37:55.904Z</time></trkpt><trkpt lat="39.412194774118866" lon="9.285264463346687"><ele>836.4000000000001</ele><time>2026-04-28T10:37:56.904Z</time></trkpt><trkpt lat="39.412155152179814" lon="9.28535467175302"><ele>835.8000000000001</ele><time>2026-04-28T10:37:57.904Z</time></trkpt><trkpt lat="39.412109316239686" lon="9.285462166155131"><ele>835.2</ele><time>2026-04-28T10:37:58.904Z</time></trkpt><trkpt lat="39.41207154564325" lon="9.28556729559365"><ele>834.6</ele><time>2026-04-28T10:37:59.904Z</time></trkpt><trkpt lat="39.41202569276916" lon="9.285677934176487"><ele>834.0</ele><time>2026-04-28T10:38:00.904Z</time></trkpt><trkpt lat="39.41197608868125" lon="9.285772661969435"><ele>835.0</ele><time>2026-04-28T10:38:01.904Z</time></trkpt><trkpt lat="39.41192071193972" lon="9.285849690259422"><ele>836.0</ele><time>2026-04-28T10:38:02.904Z</time></trkpt><trkpt lat="39.41185675431805" lon="9.285923539237995"><ele>837.0</ele><time>2026-04-28T10:38:03.904Z</time></trkpt><trkpt lat="39.41178872622594" lon="9.285999527214162"><ele>838.0</ele><time>2026-04-28T10:38:04.904Z</time></trkpt><trkpt lat="39.41172239903408" lon="9.28607741595926"><ele>839.0</ele><time>2026-04-28T10:38:05.904Z</time></trkpt><trkpt lat="39.411661615159666" lon="9.286156898693573"><ele>840.0</ele><time>2026-04-28T10:38:06.904Z</time></trkpt><trkpt lat="39.41161838901346" lon="9.286227238097645"><ele>840.0</ele><time>2026-04-28T10:38:07.904Z</time></trkpt><trkpt lat="39.411589195446936" lon="9.286311679649135"><ele>840.0</ele><time>2026-04-28T10:38:08.904Z</time></trkpt><trkpt lat="39.411566989785484" lon="9.286409159066766"><ele>840.0</ele><time>2026-04-28T10:38:09.904Z</time></trkpt><trkpt lat="39.411554009521595" lon="9.286496996163567"><ele>840.0</ele><time>2026-04-28T10:38:10.904Z</time></trkpt><trkpt lat="39.41154965296261" lon="9.286580717152225"><ele>840.0</ele><time>2026-04-28T10:38:11.904Z</time></trkpt><trkpt lat="39.411555948736996" lon="9.286675242410542"><ele>840.0</ele><time>2026-04-28T10:38:12.904Z</time></trkpt><trkpt lat="39.41154331736235" lon="9.28675726736261"><ele>840.0</ele><time>2026-04-28T10:38:13.904Z</time></trkpt><trkpt lat="39.41151594870167" lon="9.286848434403078"><ele>840.6666666666666</ele><time>2026-04-28T10:38:14.904Z</time></trkpt><trkpt lat="39.41148123796067" lon="9.286921137125688"><ele>841.3333333333333</ele><time>2026-04-28T10:38:15.904Z</time></trkpt><trkpt lat="39.41143412749852" lon="9.287009445066479"><ele>842.0</ele><time>2026-04-28T10:38:16.904Z</time></trkpt><trkpt lat="39.41137545511375" lon="9.287103555637625"><ele>842.6666666666666</ele><time>2026-04-28T10:38:17.904Z</time></trkpt><trkpt lat="39.4113132627767" lon="9.287202371166194"><ele>843.3333333333333</ele><time>2026-04-28T10:38:18.904Z</time></trkpt><trkpt lat="39.41125272411325" lon="9.287304763017968"><ele>844.0</ele><time>2026-04-28T10:38:19.904Z</time></trkpt><trkpt lat="39.41120230223416" lon="9.287387691863277"><ele>845.2</ele><time>2026-04-28T10:38:20.904Z</time></trkpt><trkpt lat="39.41117261898074" lon="9.28746252919854"><ele>846.4000000000001</ele><time>2026-04-28T10:38:21.904Z</time></trkpt><trkpt lat="39.411153466853" lon="9.287598786832747"><ele>847.6</ele><time>2026-04-28T10:38:23.904Z</time></trkpt><trkpt lat="39.411162358215556" lon="9.287777152381299"><ele>848.8</ele><time>2026-04-28T10:38:25.904Z</time></trkpt><trkpt lat="39.411164755102625" lon="9.287881689321054"><ele>850.0</ele><time>2026-04-28T10:38:26.904Z</time></trkpt><trkpt lat="39.41117283272627" lon="9.287986410656831"><ele>849.8333333333333</ele><time>2026-04-28T10:38:27.904Z</time></trkpt><trkpt lat="39.41117793127763" lon="9.288095185501932"><ele>849.6666666666666</ele><time>2026-04-28T10:38:28.904Z</time></trkpt><trkpt lat="39.411186459916955" lon="9.288183029920374"><ele>849.5</ele><time>2026-04-28T10:38:29.904Z</time></trkpt><trkpt lat="39.41118605393303" lon="9.28828163876217"><ele>849.3333333333333</ele><time>2026-04-28T10:38:30.904Z</time></trkpt><trkpt lat="39.4111858029064" lon="9.288378504954078"><ele>849.1666666666666</ele><time>2026-04-28T10:38:31.904Z</time></trkpt><trkpt lat="39.41118918225755" lon="9.288465510415211"><ele>849.0</ele><time>2026-04-28T10:38:32.904Z</time></trkpt><trkpt lat="39.411197303992004" lon="9.288624921710525"><ele>849.0</ele><time>2026-04-28T10:38:34.904Z</time></trkpt><trkpt lat="39.41118472784686" lon="9.28871127519037"><ele>849.0</ele><time>2026-04-28T10:38:35.904Z</time></trkpt><trkpt lat="39.41116528765965" lon="9.288801964610455"><ele>849.0</ele><time>2026-04-28T10:38:36.905Z</time></trkpt><trkpt lat="39.41114176534463" lon="9.288895389035225"><ele>849.0</ele><time>2026-04-28T10:38:37.905Z</time></trkpt><trkpt lat="39.41113772646741" lon="9.288982815730433"><ele>849.0</ele><time>2026-04-28T10:38:38.905Z</time></trkpt><trkpt lat="39.41115235073876" lon="9.289065337962645"><ele>849.0</ele><time>2026-04-28T10:38:39.905Z</time></trkpt><trkpt lat="39.41120946838412" lon="9.28919484741618"><ele>848.8000000000001</ele><time>2026-04-28T10:38:41.905Z</time></trkpt><trkpt lat="39.41125209179804" lon="9.289311545932852"><ele>848.6</ele><time>2026-04-28T10:38:43.905Z</time></trkpt><trkpt lat="39.41125354697327" lon="9.289401322875083"><ele>848.4</ele><time>2026-04-28T10:38:45.905Z</time></trkpt><trkpt lat="39.411203065060434" lon="9.289496931698382"><ele>848.2</ele><time>2026-04-28T10:38:48.905Z</time></trkpt><trkpt lat="39.41112034103913" lon="9.289564701525723"><ele>848.0</ele><time>2026-04-28T10:38:50.905Z</time></trkpt><trkpt lat="39.41102796258471" lon="9.289627501138552"><ele>848.2</ele><time>2026-04-28T10:38:52.905Z</time></trkpt><trkpt lat="39.41097000461972" lon="9.289767361139653"><ele>848.4</ele><time>2026-04-28T10:38:54.905Z</time></trkpt><trkpt lat="39.41094736178666" lon="9.289856036208072"><ele>848.6</ele><time>2026-04-28T10:38:55.905Z</time></trkpt><trkpt lat="39.41091375705187" lon="9.289986578540248"><ele>848.8000000000001</ele><time>2026-04-28T10:38:57.903Z</time></trkpt><trkpt lat="39.41093513635736" lon="9.29010470782155"><ele>849.0</ele><time>2026-04-28T10:38:59.903Z</time></trkpt><trkpt lat="39.411010231911625" lon="9.290233951794292"><ele>849.0000000000001</ele><time>2026-04-28T10:39:01.903Z</time></trkpt><trkpt lat="39.41104571620549" lon="9.29031059810447"><ele>849.0</ele><time>2026-04-28T10:39:02.903Z</time></trkpt><trkpt lat="39.41107712004864" lon="9.290388842537885"><ele>849.0</ele><time>2026-04-28T10:39:03.903Z</time></trkpt><trkpt lat="39.411090961906886" lon="9.29051179394706"><ele>849.0</ele><time>2026-04-28T10:39:05.903Z</time></trkpt><trkpt lat="39.41108508541416" lon="9.290593326973466"><ele>849.0</ele><time>2026-04-28T10:39:06.903Z</time></trkpt><trkpt lat="39.411072516823715" lon="9.290686011534113"><ele>849.0000000000001</ele><time>2026-04-28T10:39:07.903Z</time></trkpt><trkpt lat="39.41105273968853" lon="9.290779788853296"><ele>849.0</ele><time>2026-04-28T10:39:08.903Z</time></trkpt><trkpt lat="39.41103533661781" lon="9.290868163260733"><ele>848.8000000000001</ele><time>2026-04-28T10:39:09.903Z</time></trkpt><trkpt lat="39.41101760186198" lon="9.291027927839515"><ele>848.6</ele><time>2026-04-28T10:39:11.903Z</time></trkpt><trkpt lat="39.41104121168734" lon="9.291155135913934"><ele>848.4</ele><time>2026-04-28T10:39:13.903Z</time></trkpt><trkpt lat="39.41109177346079" lon="9.291241740252119"><ele>848.2</ele><time>2026-04-28T10:39:15.903Z</time></trkpt><trkpt lat="39.41114640046184" lon="9.291350185497118"><ele>848.0</ele><time>2026-04-28T10:39:17.903Z</time></trkpt><trkpt lat="39.41115573976463" lon="9.291465476316382"><ele>847.8333333333334</ele><time>2026-04-28T10:39:19.903Z</time></trkpt><trkpt lat="39.411136180391956" lon="9.2916037017119"><ele>847.6666666666667</ele><time>2026-04-28T10:39:21.903Z</time></trkpt><trkpt lat="39.41112773995592" lon="9.291749720081146"><ele>847.5</ele><time>2026-04-28T10:39:23.903Z</time></trkpt><trkpt lat="39.411123977161445" lon="9.29183366634088"><ele>847.3333333333333</ele><time>2026-04-28T10:39:24.903Z</time></trkpt><trkpt lat="39.411120178958356" lon="9.29193650609172"><ele>847.1666666666666</ele><time>2026-04-28T10:39:25.903Z</time></trkpt><trkpt lat="39.41112376743696" lon="9.292038504610549"><ele>847.0</ele><time>2026-04-28T10:39:26.903Z</time></trkpt><trkpt lat="39.411137375683694" lon="9.292140119667968"><ele>846.9999999999999</ele><time>2026-04-28T10:39:27.903Z</time></trkpt><trkpt lat="39.41116404573712" lon="9.292231040376532"><ele>847.0</ele><time>2026-04-28T10:39:28.903Z</time></trkpt><trkpt lat="39.41119618427078" lon="9.29231193833301"><ele>847.0</ele><time>2026-04-28T10:39:29.903Z</time></trkpt><trkpt lat="39.41123490086896" lon="9.292388502302732"><ele>847.0</ele><time>2026-04-28T10:39:30.903Z</time></trkpt><trkpt lat="39.41126707616839" lon="9.292476201356823"><ele>846.9999999999999</ele><time>2026-04-28T10:39:31.903Z</time></trkpt><trkpt lat="39.41129286057367" lon="9.292594181497433"><ele>847.0</ele><time>2026-04-28T10:39:33.904Z</time></trkpt><trkpt lat="39.41130048582515" lon="9.292679547026124"><ele>848.8</ele><time>2026-04-28T10:39:34.904Z</time></trkpt><trkpt lat="39.41129662858371" lon="9.292809439386726"><ele>850.6</ele><time>2026-04-28T10:39:36.904Z</time></trkpt><trkpt lat="39.411301148284046" lon="9.29289176168481"><ele>852.3999999999999</ele><time>2026-04-28T10:39:37.904Z</time></trkpt><trkpt lat="39.411311051417556" lon="9.29297675495046"><ele>854.1999999999999</ele><time>2026-04-28T10:39:38.904Z</time></trkpt><trkpt lat="39.41131405372384" lon="9.293137555103499"><ele>856.0</ele><time>2026-04-28T10:39:40.904Z</time></trkpt><trkpt lat="39.41126686772176" lon="9.29328520654944"><ele>858.0</ele><time>2026-04-28T10:39:42.904Z</time></trkpt><trkpt lat="39.41118297136155" lon="9.293409050275926"><ele>859.9999999999999</ele><time>2026-04-28T10:39:44.904Z</time></trkpt><trkpt lat="39.41112436845276" lon="9.29346559305983"><ele>861.9999999999999</ele><time>2026-04-28T10:39:45.904Z</time></trkpt><trkpt lat="39.4110116673021" lon="9.29354043684937"><ele>864.0</ele><time>2026-04-28T10:39:47.904Z</time></trkpt><trkpt lat="39.41090742913011" lon="9.293600496826253"><ele>866.0</ele><time>2026-04-28T10:39:49.904Z</time></trkpt><trkpt lat="39.41082479986656" lon="9.293705062415155"><ele>866.0000000000001</ele><time>2026-04-28T10:39:51.904Z</time></trkpt><trkpt lat="39.4107787085937" lon="9.293772203515385"><ele>866.0</ele><time>2026-04-28T10:39:52.904Z</time></trkpt><trkpt lat="39.41072761525218" lon="9.29385862268947"><ele>866.0</ele><time>2026-04-28T10:39:53.904Z</time></trkpt><trkpt lat="39.4106810864446" lon="9.293956595911961"><ele>866.0</ele><time>2026-04-28T10:39:54.904Z</time></trkpt><trkpt lat="39.410644058399946" lon="9.294057615507212"><ele>866.0000000000001</ele><time>2026-04-28T10:39:55.904Z</time></trkpt><trkpt lat="39.41061438828832" lon="9.294166737693637"><ele>866.0</ele><time>2026-04-28T10:39:56.904Z</time></trkpt><trkpt lat="39.41058571690491" lon="9.294287205271678"><ele>867.5999999999999</ele><time>2026-04-28T10:39:57.904Z</time></trkpt><trkpt lat="39.410552939516954" lon="9.294411908225582"><ele>869.1999999999999</ele><time>2026-04-28T10:39:58.904Z</time></trkpt><trkpt lat="39.410532221870525" lon="9.294539593393386"><ele>870.8000000000001</ele><time>2026-04-28T10:39:59.904Z</time></trkpt><trkpt lat="39.410514461801434" lon="9.294651159142122"><ele>872.4000000000001</ele><time>2026-04-28T10:40:00.904Z</time></trkpt><trkpt lat="39.4104933783061" lon="9.294757775998326"><ele>874.0</ele><time>2026-04-28T10:40:01.904Z</time></trkpt><trkpt lat="39.4104781749458" lon="9.294858382881898"><ele>875.1666666666666</ele><time>2026-04-28T10:40:02.904Z</time></trkpt><trkpt lat="39.41045598628183" lon="9.29496415670295"><ele>876.3333333333333</ele><time>2026-04-28T10:40:03.904Z</time></trkpt><trkpt lat="39.41043269398764" lon="9.295063013940426"><ele>877.5</ele><time>2026-04-28T10:40:04.904Z</time></trkpt><trkpt lat="39.4104384750403" lon="9.295205573602258"><ele>878.6666666666667</ele><time>2026-04-28T10:40:06.904Z</time></trkpt><trkpt lat="39.41046460644342" lon="9.295301925387399"><ele>879.8333333333334</ele><time>2026-04-28T10:40:08.904Z</time></trkpt><trkpt lat="39.410471988077745" lon="9.295388627986911"><ele>881.0</ele><time>2026-04-28T10:40:10.904Z</time></trkpt><trkpt lat="39.41048310234106" lon="9.29550595797401"><ele>881.1999999999999</ele><time>2026-04-28T10:40:12.904Z</time></trkpt><trkpt lat="39.410470534214575" lon="9.295621294680126"><ele>881.3999999999999</ele><time>2026-04-28T10:40:14.904Z</time></trkpt><trkpt lat="39.410406780205726" lon="9.295763694793443"><ele>881.6</ele><time>2026-04-28T10:40:16.904Z</time></trkpt><trkpt lat="39.41037602479828" lon="9.295836826595233"><ele>881.8</ele><time>2026-04-28T10:40:17.904Z</time></trkpt><trkpt lat="39.4103524564286" lon="9.29597204544044"><ele>882.0</ele><time>2026-04-28T10:40:19.904Z</time></trkpt><trkpt lat="39.41035691033872" lon="9.296088228580114"><ele>882.0</ele><time>2026-04-28T10:40:21.904Z</time></trkpt><trkpt lat="39.4103712367033" lon="9.296184961603057"><ele>882.0</ele><time>2026-04-28T10:40:23.904Z</time></trkpt><trkpt lat="39.41036302413137" lon="9.296269150780137"><ele>882.0</ele><time>2026-04-28T10:40:25.905Z</time></trkpt><trkpt lat="39.410347640597024" lon="9.296360215422762"><ele>882.0</ele><time>2026-04-28T10:40:27.905Z</time></trkpt><trkpt lat="39.410355159270935" lon="9.29645012598544"><ele>882.0</ele><time>2026-04-28T10:40:29.905Z</time></trkpt><trkpt lat="39.41035910658189" lon="9.296536276146414"><ele>882.0</ele><time>2026-04-28T10:40:32.905Z</time></trkpt><trkpt lat="39.410309906737524" lon="9.29661832146102"><ele>882.0</ele><time>2026-04-28T10:40:35.905Z</time></trkpt><trkpt lat="39.41028791133377" lon="9.296729788986871"><ele>880.6666666666666</ele><time>2026-04-28T10:40:38.905Z</time></trkpt><trkpt lat="39.41029338641418" lon="9.2968432006225"><ele>879.3333333333333</ele><time>2026-04-28T10:40:41.905Z</time></trkpt><trkpt lat="39.41029247329335" lon="9.296942506950243"><ele>878.0</ele><time>2026-04-28T10:40:44.905Z</time></trkpt><trkpt lat="39.4102588190939" lon="9.297035631031166"><ele>876.6666666666666</ele><time>2026-04-28T10:40:47.905Z</time></trkpt><trkpt lat="39.410220012447844" lon="9.297126584664602"><ele>875.3333333333333</ele><time>2026-04-28T10:40:50.905Z</time></trkpt><trkpt lat="39.410170229934" lon="9.29719693137242"><ele>874.0</ele><time>2026-04-28T10:40:53.905Z</time></trkpt><trkpt lat="39.41010908638743" lon="9.297240238418274"><ele>871.8333333333333</ele><time>2026-04-28T10:40:56.905Z</time></trkpt><trkpt lat="39.41010499473195" lon="9.297325574298855"><ele>869.6666666666666</ele><time>2026-04-28T10:41:21.904Z</time></trkpt><trkpt lat="39.410089988276724" lon="9.297415750677134"><ele>867.5</ele><time>2026-04-28T10:42:07.905Z</time></trkpt><trkpt lat="39.41005328654072" lon="9.297506571584169"><ele>865.3333333333333</ele><time>2026-04-28T10:42:11.905Z</time></trkpt><trkpt lat="39.4100227098059" lon="9.297616183982006"><ele>863.1666666666666</ele><time>2026-04-28T10:42:14.905Z</time></trkpt><trkpt lat="39.40999184750083" lon="9.297708083627482"><ele>861.0</ele><time>2026-04-28T10:42:16.905Z</time></trkpt><trkpt lat="39.40995195964242" lon="9.297796955004035"><ele>861.0</ele><time>2026-04-28T10:42:18.905Z</time></trkpt><trkpt lat="39.40991601218568" lon="9.297892746895023"><ele>860.9999999999999</ele><time>2026-04-28T10:42:20.905Z</time></trkpt><trkpt lat="39.409879074488636" lon="9.29801616060882"><ele>860.9999999999999</ele><time>2026-04-28T10:42:22.905Z</time></trkpt><trkpt lat="39.40984052695696" lon="9.2981393171415"><ele>861.0</ele><time>2026-04-28T10:42:24.905Z</time></trkpt><trkpt lat="39.409802039698505" lon="9.298266988729207"><ele>861.0</ele><time>2026-04-28T10:42:26.905Z</time></trkpt><trkpt lat="39.40979408521631" lon="9.298421124812062"><ele>858.4</ele><time>2026-04-28T10:42:28.905Z</time></trkpt><trkpt lat="39.40979975447115" lon="9.298517952065291"><ele>855.8</ele><time>2026-04-28T10:42:29.905Z</time></trkpt><trkpt lat="39.40979466253988" lon="9.29865705015844"><ele>853.1999999999999</ele><time>2026-04-28T10:42:31.905Z</time></trkpt><trkpt lat="39.409773449492405" lon="9.298793934978661"><ele>850.5999999999999</ele><time>2026-04-28T10:42:33.905Z</time></trkpt><trkpt lat="39.40978279665941" lon="9.298913437178031"><ele>848.0</ele><time>2026-04-28T10:42:35.905Z</time></trkpt><trkpt lat="39.40980200822618" lon="9.299019349373422"><ele>845.0</ele><time>2026-04-28T10:42:37.905Z</time></trkpt><trkpt lat="39.40979274606488" lon="9.299160655123202"><ele>842.0</ele><time>2026-04-28T10:42:39.905Z</time></trkpt><trkpt lat="39.409765066183574" lon="9.299306409986562"><ele>839.0</ele><time>2026-04-28T10:42:41.905Z</time></trkpt><trkpt lat="39.4097509016556" lon="9.299391064188281"><ele>836.0</ele><time>2026-04-28T10:42:42.906Z</time></trkpt><trkpt lat="39.40973389703124" lon="9.299474754579505"><ele>833.0</ele><time>2026-04-28T10:42:43.906Z</time></trkpt><trkpt lat="39.40970399407246" lon="9.299608877081818"><ele>833.0</ele><time>2026-04-28T10:42:45.906Z</time></trkpt><trkpt lat="39.40968499302493" lon="9.299730298551681"><ele>833.0</ele><time>2026-04-28T10:42:47.906Z</time></trkpt><trkpt lat="39.40965335633166" lon="9.299852322298522"><ele>833.0</ele><time>2026-04-28T10:42:49.906Z</time></trkpt><trkpt lat="39.40962878213405" lon="9.29996778307601"><ele>833.0</ele><time>2026-04-28T10:42:51.906Z</time></trkpt><trkpt lat="39.40958806678801" lon="9.300077011648176"><ele>833.0</ele><time>2026-04-28T10:42:53.906Z</time></trkpt><trkpt lat="39.40955482661011" lon="9.300172786739925"><ele>830.6666666666667</ele><time>2026-04-28T10:42:55.906Z</time></trkpt><trkpt lat="39.40953410351256" lon="9.300287521708686"><ele>828.3333333333334</ele><time>2026-04-28T10:42:57.906Z</time></trkpt><trkpt lat="39.40950791483102" lon="9.300381561365223"><ele>826.0</ele><time>2026-04-28T10:42:59.906Z</time></trkpt><trkpt lat="39.40950463029181" lon="9.300485175046001"><ele>823.6666666666667</ele><time>2026-04-28T10:43:01.906Z</time></trkpt><trkpt lat="39.409507094344306" lon="9.300592242279833"><ele>821.3333333333334</ele><time>2026-04-28T10:43:03.906Z</time></trkpt><trkpt lat="39.40947455747036" lon="9.300691209548777"><ele>819.0</ele><time>2026-04-28T10:43:05.906Z</time></trkpt><trkpt lat="39.409429214289496" lon="9.300757866295669"><ele>817.5</ele><time>2026-04-28T10:43:07.906Z</time></trkpt><trkpt lat="39.409396603502955" lon="9.300838125317206"><ele>816.0</ele><time>2026-04-28T10:43:09.904Z</time></trkpt><trkpt lat="39.40935799294158" lon="9.30091564748687"><ele>814.5</ele><time>2026-04-28T10:43:11.905Z</time></trkpt><trkpt lat="39.40931941467239" lon="9.301016579741558"><ele>813.0</ele><time>2026-04-28T10:43:14.905Z</time></trkpt><trkpt lat="39.40929440077008" lon="9.301136282198977"><ele>811.5</ele><time>2026-04-28T10:43:17.904Z</time></trkpt><trkpt lat="39.409316913197635" lon="9.301218137013324"><ele>810.0</ele><time>2026-04-28T10:43:19.905Z</time></trkpt><trkpt lat="39.409347682455206" lon="9.301297824653638"><ele>810.0</ele><time>2026-04-28T10:43:21.905Z</time></trkpt><trkpt lat="39.409408174344364" lon="9.301410736301369"><ele>810.0</ele><time>2026-04-28T10:43:23.905Z</time></trkpt><trkpt lat="39.409437460138584" lon="9.301489290459973"><ele>810.0</ele><time>2026-04-28T10:43:25.905Z</time></trkpt><trkpt lat="39.409493511201084" lon="9.301608543556565"><ele>810.0</ele><time>2026-04-28T10:43:27.905Z</time></trkpt><trkpt lat="39.40953304294238" lon="9.301677931361537"><ele>810.0</ele><time>2026-04-28T10:43:28.905Z</time></trkpt><trkpt lat="39.40957965795563" lon="9.301741701592217"><ele>810.0</ele><time>2026-04-28T10:43:29.905Z</time></trkpt><trkpt lat="39.40961760200447" lon="9.301812747028684"><ele>807.8</ele><time>2026-04-28T10:43:30.905Z</time></trkpt><trkpt lat="39.409658208800664" lon="9.301953671323682"><ele>805.6</ele><time>2026-04-28T10:43:32.905Z</time></trkpt><trkpt lat="39.40966720473905" lon="9.30203501833558"><ele>803.4000000000001</ele><time>2026-04-28T10:43:33.905Z</time></trkpt><trkpt lat="39.40967175690345" lon="9.30219145956997"><ele>801.2</ele><time>2026-04-28T10:43:35.905Z</time></trkpt><trkpt lat="39.40968324033539" lon="9.302279752139459"><ele>799.0</ele><time>2026-04-28T10:43:36.905Z</time></trkpt><trkpt lat="39.4097035114168" lon="9.30238967582126"><ele>797.4000000000001</ele><time>2026-04-28T10:43:37.905Z</time></trkpt><trkpt lat="39.40972500914483" lon="9.302505630452918"><ele>795.8</ele><time>2026-04-28T10:43:38.905Z</time></trkpt><trkpt lat="39.40974936179285" lon="9.302624539777712"><ele>794.2</ele><time>2026-04-28T10:43:39.905Z</time></trkpt><trkpt lat="39.409781856914364" lon="9.302757075155581"><ele>792.5999999999999</ele><time>2026-04-28T10:43:40.905Z</time></trkpt><trkpt lat="39.40981455588392" lon="9.302881828623255"><ele>791.0</ele><time>2026-04-28T10:43:41.905Z</time></trkpt><trkpt lat="39.409847528210406" lon="9.303009900994086"><ele>791.0</ele><time>2026-04-28T10:43:42.905Z</time></trkpt><trkpt lat="39.40988071401443" lon="9.303130292727777"><ele>791.0</ele><time>2026-04-28T10:43:43.905Z</time></trkpt><trkpt lat="39.409913522152664" lon="9.303235154988018"><ele>791.0</ele><time>2026-04-28T10:43:44.905Z</time></trkpt><trkpt lat="39.40994298910027" lon="9.303340584865222"><ele>791.0</ele><time>2026-04-28T10:43:45.905Z</time></trkpt><trkpt lat="39.40996747840124" lon="9.303458711393844"><ele>791.0</ele><time>2026-04-28T10:43:46.905Z</time></trkpt><trkpt lat="39.40998723180964" lon="9.303571551309666"><ele>791.0000000000001</ele><time>2026-04-28T10:43:47.905Z</time></trkpt><trkpt lat="39.41000018993695" lon="9.303675511609152"><ele>791.0</ele><time>2026-04-28T10:43:48.905Z</time></trkpt><trkpt lat="39.41001033758087" lon="9.303773761211204"><ele>791.0</ele><time>2026-04-28T10:43:49.905Z</time></trkpt><trkpt lat="39.41001230256562" lon="9.303864736298634"><ele>791.0</ele><time>2026-04-28T10:43:50.905Z</time></trkpt><trkpt lat="39.40999757609398" lon="9.3040035149051"><ele>791.0000000000001</ele><time>2026-04-28T10:43:52.905Z</time></trkpt><trkpt lat="39.40997836164103" lon="9.304133974556178"><ele>791.0</ele><time>2026-04-28T10:43:54.905Z</time></trkpt><trkpt lat="39.409977978357325" lon="9.304268651122392"><ele>789.5</ele><time>2026-04-28T10:43:56.905Z</time></trkpt><trkpt lat="39.40999979991423" lon="9.304436722405947"><ele>788.0</ele><time>2026-04-28T10:43:58.905Z</time></trkpt><trkpt lat="39.41002376148411" lon="9.304590649464997"><ele>786.5</ele><time>2026-04-28T10:44:00.905Z</time></trkpt><trkpt lat="39.410056565457005" lon="9.304708141274261"><ele>785.0</ele><time>2026-04-28T10:44:02.905Z</time></trkpt><trkpt lat="39.41007629001823" lon="9.304859026425692"><ele>783.1666666666667</ele><time>2026-04-28T10:44:04.906Z</time></trkpt><trkpt lat="39.41008269245742" lon="9.304948507471394"><ele>781.3333333333334</ele><time>2026-04-28T10:44:05.906Z</time></trkpt><trkpt lat="39.41009261379689" lon="9.305029305287293"><ele>779.5</ele><time>2026-04-28T10:44:06.906Z</time></trkpt><trkpt lat="39.41011259841147" lon="9.305118028412899"><ele>777.6666666666667</ele><time>2026-04-28T10:44:07.906Z</time></trkpt><trkpt lat="39.41015105411925" lon="9.305257440395344"><ele>775.8333333333334</ele><time>2026-04-28T10:44:09.906Z</time></trkpt><trkpt lat="39.410170661836894" lon="9.305382833896045"><ele>774.0</ele><time>2026-04-28T10:44:11.906Z</time></trkpt><trkpt lat="39.41016229188414" lon="9.30552759326328"><ele>773.0</ele><time>2026-04-28T10:44:13.906Z</time></trkpt><trkpt lat="39.41015335885379" lon="9.30562573410566"><ele>772.0</ele><time>2026-04-28T10:44:14.906Z</time></trkpt><trkpt lat="39.41014185019723" lon="9.305716104454511"><ele>771.0</ele><time>2026-04-28T10:44:15.906Z</time></trkpt><trkpt lat="39.41013295358224" lon="9.30581721219362"><ele>770.0</ele><time>2026-04-28T10:44:16.906Z</time></trkpt><trkpt lat="39.410134279010755" lon="9.30590771816014"><ele>769.0</ele><time>2026-04-28T10:44:17.906Z</time></trkpt><trkpt lat="39.41013505401399" lon="9.306011793003865"><ele>768.0</ele><time>2026-04-28T10:44:18.906Z</time></trkpt><trkpt lat="39.41013182585832" lon="9.306120907278773"><ele>768.0</ele><time>2026-04-28T10:44:19.906Z</time></trkpt><trkpt lat="39.4101242908868" lon="9.30625337296943"><ele>768.0</ele><time>2026-04-28T10:44:20.906Z</time></trkpt><trkpt lat="39.41011865364262" lon="9.306387536813567"><ele>768.0</ele><time>2026-04-28T10:44:21.906Z</time></trkpt><trkpt lat="39.4101135538587" lon="9.30651886350777"><ele>768.0</ele><time>2026-04-28T10:44:22.906Z</time></trkpt><trkpt lat="39.41010496584104" lon="9.30663294485878"><ele>768.0</ele><time>2026-04-28T10:44:23.906Z</time></trkpt><trkpt lat="39.41008760493846" lon="9.306738529984711"><ele>767.6666666666666</ele><time>2026-04-28T10:44:24.906Z</time></trkpt><trkpt lat="39.41007782588707" lon="9.306830392386177"><ele>767.3333333333334</ele><time>2026-04-28T10:44:25.906Z</time></trkpt><trkpt lat="39.41008298766971" lon="9.306922074910238"><ele>767.0</ele><time>2026-04-28T10:44:26.906Z</time></trkpt><trkpt lat="39.410102685908896" lon="9.307012942598346"><ele>766.6666666666667</ele><time>2026-04-28T10:44:27.906Z</time></trkpt><trkpt lat="39.4101448407564" lon="9.307118047654289"><ele>766.3333333333334</ele><time>2026-04-28T10:44:28.906Z</time></trkpt><trkpt lat="39.410195057448846" lon="9.307221310944367"><ele>766.0</ele><time>2026-04-28T10:44:29.906Z</time></trkpt><trkpt lat="39.41025209395847" lon="9.307337934919687"><ele>766.0</ele><time>2026-04-28T10:44:30.906Z</time></trkpt><trkpt lat="39.410308357623585" lon="9.307442682143359"><ele>766.0</ele><time>2026-04-28T10:44:31.906Z</time></trkpt><trkpt lat="39.41036019977998" lon="9.30753583254151"><ele>766.0</ele><time>2026-04-28T10:44:32.906Z</time></trkpt><trkpt lat="39.4104115796379" lon="9.307623302099612"><ele>766.0</ele><time>2026-04-28T10:44:33.906Z</time></trkpt><trkpt lat="39.41045666072373" lon="9.307693859320569"><ele>766.0</ele><time>2026-04-28T10:44:34.906Z</time></trkpt><trkpt lat="39.410502074916465" lon="9.307763216740515"><ele>766.0</ele><time>2026-04-28T10:44:35.906Z</time></trkpt><trkpt lat="39.41053799605466" lon="9.307842025223362"><ele>765.5999999999999</ele><time>2026-04-28T10:44:36.906Z</time></trkpt><trkpt lat="39.410587532485884" lon="9.30794203643486"><ele>765.2</ele><time>2026-04-28T10:44:37.906Z</time></trkpt><trkpt lat="39.41064211827148" lon="9.308043538897417"><ele>764.8</ele><time>2026-04-28T10:44:38.906Z</time></trkpt><trkpt lat="39.41069784235891" lon="9.30814332190356"><ele>764.4000000000001</ele><time>2026-04-28T10:44:39.906Z</time></trkpt><trkpt lat="39.41074928178712" lon="9.308245571554357"><ele>764.0</ele><time>2026-04-28T10:44:40.906Z</time></trkpt><trkpt lat="39.41078420421953" lon="9.308339330271604"><ele>764.0</ele><time>2026-04-28T10:44:41.906Z</time></trkpt><trkpt lat="39.41080031530458" lon="9.308430475609693"><ele>764.0</ele><time>2026-04-28T10:44:42.906Z</time></trkpt><trkpt lat="39.41080040733703" lon="9.308520215001645"><ele>764.0</ele><time>2026-04-28T10:44:43.906Z</time></trkpt><trkpt lat="39.41079852184919" lon="9.308633923108744"><ele>764.0</ele><time>2026-04-28T10:44:44.906Z</time></trkpt><trkpt lat="39.41079774475192" lon="9.308754283194647"><ele>764.0</ele><time>2026-04-28T10:44:45.906Z</time></trkpt><trkpt lat="39.410797298038915" lon="9.308841978715366"><ele>764.0</ele><time>2026-04-28T10:44:46.906Z</time></trkpt><trkpt lat="39.41080313358286" lon="9.30892757824307"><ele>763.0</ele><time>2026-04-28T10:44:47.906Z</time></trkpt><trkpt lat="39.41083109584528" lon="9.309091465222789"><ele>762.0</ele><time>2026-04-28T10:44:49.906Z</time></trkpt><trkpt lat="39.410890036117735" lon="9.309210995056011"><ele>761.0</ele><time>2026-04-28T10:44:51.906Z</time></trkpt><trkpt lat="39.410990705463234" lon="9.309335231705598"><ele>760.0</ele><time>2026-04-28T10:44:53.906Z</time></trkpt><trkpt lat="39.41106412147277" lon="9.309397424128033"><ele>760.0</ele><time>2026-04-28T10:44:54.906Z</time></trkpt><trkpt lat="39.4111320864496" lon="9.309486922890358"><ele>760.0</ele><time>2026-04-28T10:44:55.907Z</time></trkpt><trkpt lat="39.41119847121282" lon="9.309587090610252"><ele>760.0</ele><time>2026-04-28T10:44:56.907Z</time></trkpt><trkpt lat="39.411279165539156" lon="9.309678467611803"><ele>760.0</ele><time>2026-04-28T10:44:57.907Z</time></trkpt><trkpt lat="39.41136703481453" lon="9.309755848008606"><ele>760.0</ele><time>2026-04-28T10:44:58.907Z</time></trkpt><trkpt lat="39.411445641674504" lon="9.309815060631848"><ele>760.5</ele><time>2026-04-28T10:44:59.907Z</time></trkpt><trkpt lat="39.41151505874135" lon="9.309882272215724"><ele>761.0</ele><time>2026-04-28T10:45:00.907Z</time></trkpt><trkpt lat="39.41156272767847" lon="9.309956192022447"><ele>761.5</ele><time>2026-04-28T10:45:01.907Z</time></trkpt><trkpt lat="39.411600523420525" lon="9.310041646259734"><ele>762.0</ele><time>2026-04-28T10:45:02.907Z</time></trkpt><trkpt lat="39.41163738274101" lon="9.310114114706304"><ele>762.5</ele><time>2026-04-28T10:45:03.907Z</time></trkpt><trkpt lat="39.411685974177885" lon="9.310173812675176"><ele>763.0</ele><time>2026-04-28T10:45:04.907Z</time></trkpt><trkpt lat="39.41179177728331" lon="9.31024804898274"><ele>763.0</ele><time>2026-04-28T10:45:06.907Z</time></trkpt><trkpt lat="39.41186718702402" lon="9.310335648145951"><ele>763.0</ele><time>2026-04-28T10:45:08.907Z</time></trkpt><trkpt lat="39.41195038785513" lon="9.310506543875835"><ele>763.0</ele><time>2026-04-28T10:45:10.907Z</time></trkpt><trkpt lat="39.412007786484104" lon="9.310626131418402"><ele>763.0</ele><time>2026-04-28T10:45:11.907Z</time></trkpt><trkpt lat="39.41207224243731" lon="9.31074158636301"><ele>763.5</ele><time>2026-04-28T10:45:12.907Z</time></trkpt><trkpt lat="39.41216495413932" lon="9.310852507445277"><ele>764.0</ele><time>2026-04-28T10:45:13.907Z</time></trkpt><trkpt lat="39.41224671751851" lon="9.310964754487044"><ele>764.5</ele><time>2026-04-28T10:45:14.907Z</time></trkpt><trkpt lat="39.41232726868453" lon="9.311078553280394"><ele>765.0</ele><time>2026-04-28T10:45:15.905Z</time></trkpt><trkpt lat="39.41239069066354" lon="9.311188859296816"><ele>765.0</ele><time>2026-04-28T10:45:16.905Z</time></trkpt><trkpt lat="39.41244377179606" lon="9.31130045980596"><ele>765.0</ele><time>2026-04-28T10:45:17.905Z</time></trkpt><trkpt lat="39.41249438011312" lon="9.311422736551872"><ele>765.0</ele><time>2026-04-28T10:45:18.905Z</time></trkpt><trkpt lat="39.41253847835216" lon="9.311535069598216"><ele>765.0</ele><time>2026-04-28T10:45:19.905Z</time></trkpt><trkpt lat="39.4125782657079" lon="9.311660049037362"><ele>765.0</ele><time>2026-04-28T10:45:20.905Z</time></trkpt><trkpt lat="39.41261110190419" lon="9.311764536135556"><ele>764.8</ele><time>2026-04-28T10:45:21.906Z</time></trkpt><trkpt lat="39.412663882708166" lon="9.31184100198187"><ele>764.6</ele><time>2026-04-28T10:45:23.906Z</time></trkpt><trkpt lat="39.41275001451404" lon="9.31191822324368"><ele>764.4000000000001</ele><time>2026-04-28T10:45:25.905Z</time></trkpt><trkpt lat="39.41281185853776" lon="9.311939512720398"><ele>764.2</ele><time>2026-04-28T10:45:26.905Z</time></trkpt><trkpt lat="39.41294278935499" lon="9.311923812013635"><ele>764.0</ele><time>2026-04-28T10:45:28.905Z</time></trkpt><trkpt lat="39.413018346421296" lon="9.311894575911495"><ele>765.0</ele><time>2026-04-28T10:45:29.905Z</time></trkpt><trkpt lat="39.41309795227911" lon="9.311863433174787"><ele>766.0</ele><time>2026-04-28T10:45:30.905Z</time></trkpt><trkpt lat="39.41316773740168" lon="9.311843702558352"><ele>767.0</ele><time>2026-04-28T10:45:31.905Z</time></trkpt><trkpt lat="39.41328081516525" lon="9.311866233979995"><ele>768.0</ele><time>2026-04-28T10:45:33.905Z</time></trkpt><trkpt lat="39.413348858383976" lon="9.311915419283105"><ele>769.0000000000001</ele><time>2026-04-28T10:45:34.905Z</time></trkpt><trkpt lat="39.41340946200373" lon="9.311983012573096"><ele>770.0</ele><time>2026-04-28T10:45:35.905Z</time></trkpt><trkpt lat="39.41345866400754" lon="9.31207887710842"><ele>770.0000000000001</ele><time>2026-04-28T10:45:36.905Z</time></trkpt><trkpt lat="39.4135175242897" lon="9.3121504294006"><ele>770.0</ele><time>2026-04-28T10:45:37.905Z</time></trkpt><trkpt lat="39.41357969024649" lon="9.312206571602362"><ele>770.0</ele><time>2026-04-28T10:45:38.905Z</time></trkpt><trkpt lat="39.41363835829521" lon="9.31225570749241"><ele>770.0</ele><time>2026-04-28T10:45:39.905Z</time></trkpt><trkpt lat="39.41370100227756" lon="9.312313526390845"><ele>770.0000000000001</ele><time>2026-04-28T10:45:40.905Z</time></trkpt><trkpt lat="39.413801404411316" lon="9.31239050057092"><ele>770.0</ele><time>2026-04-28T10:45:42.906Z</time></trkpt><trkpt lat="39.41391191329006" lon="9.31242414510096"><ele>769.5000000000001</ele><time>2026-04-28T10:45:44.906Z</time></trkpt><trkpt lat="39.414012907623466" lon="9.312455314480992"><ele>769.0</ele><time>2026-04-28T10:45:46.906Z</time></trkpt><trkpt lat="39.4141150137946" lon="9.312470349732198"><ele>768.5</ele><time>2026-04-28T10:45:48.906Z</time></trkpt><trkpt lat="39.414179123801084" lon="9.312494436786197"><ele>768.0</ele><time>2026-04-28T10:45:49.906Z</time></trkpt><trkpt lat="39.414241073997566" lon="9.312476006517317"><ele>767.5</ele><time>2026-04-28T10:45:50.906Z</time></trkpt><trkpt lat="39.41430724168307" lon="9.312478143304958"><ele>767.0</ele><time>2026-04-28T10:45:51.906Z</time></trkpt><trkpt lat="39.414423646107835" lon="9.312505185592906"><ele>767.0</ele><time>2026-04-28T10:45:53.906Z</time></trkpt><trkpt lat="39.414490406531264" lon="9.312636681506149"><ele>767.0</ele><time>2026-04-28T10:45:55.906Z</time></trkpt><trkpt lat="39.41453313482938" lon="9.312711476235899"><ele>767.0</ele><time>2026-04-28T10:45:56.906Z</time></trkpt><trkpt lat="39.414611656448166" lon="9.312842151931749"><ele>767.0</ele><time>2026-04-28T10:45:58.906Z</time></trkpt><trkpt lat="39.4146554407232" lon="9.31291425933998"><ele>767.0</ele><time>2026-04-28T10:45:59.906Z</time></trkpt><trkpt lat="39.41470287064322" lon="9.312990244866288"><ele>765.3333333333333</ele><time>2026-04-28T10:46:00.906Z</time></trkpt><trkpt lat="39.41475003336157" lon="9.313069616903778"><ele>763.6666666666666</ele><time>2026-04-28T10:46:01.906Z</time></trkpt><trkpt lat="39.41478591255203" lon="9.313146912233416"><ele>762.0</ele><time>2026-04-28T10:46:02.906Z</time></trkpt><trkpt lat="39.41483080184175" lon="9.313210418133533"><ele>760.3333333333334</ele><time>2026-04-28T10:46:03.906Z</time></trkpt><trkpt lat="39.414911194129466" lon="9.31332016746114"><ele>758.6666666666667</ele><time>2026-04-28T10:46:05.906Z</time></trkpt><trkpt lat="39.41499826169838" lon="9.313412319731105"><ele>757.0</ele><time>2026-04-28T10:46:07.906Z</time></trkpt><trkpt lat="39.41510946314734" lon="9.313434918156188"><ele>757.0</ele><time>2026-04-28T10:46:09.906Z</time></trkpt><trkpt lat="39.415214210770195" lon="9.313438797130875"><ele>757.0</ele><time>2026-04-28T10:46:11.906Z</time></trkpt><trkpt lat="39.415318423087896" lon="9.313389211584447"><ele>757.0</ele><time>2026-04-28T10:46:13.906Z</time></trkpt><trkpt lat="39.415437872830786" lon="9.313372069234923"><ele>757.0</ele><time>2026-04-28T10:46:15.906Z</time></trkpt><trkpt lat="39.41556428667279" lon="9.313379198819817"><ele>755.4285714285714</ele><time>2026-04-28T10:46:17.906Z</time></trkpt><trkpt lat="39.415633488259814" lon="9.313398440616373"><ele>753.8571428571428</ele><time>2026-04-28T10:46:18.906Z</time></trkpt><trkpt lat="39.41569985458518" lon="9.313429010215069"><ele>752.2857142857142</ele><time>2026-04-28T10:46:19.906Z</time></trkpt><trkpt lat="39.41576339388524" lon="9.313456185147084"><ele>750.7142857142858</ele><time>2026-04-28T10:46:20.906Z</time></trkpt><trkpt lat="39.415827193766226" lon="9.313476467849505"><ele>749.1428571428571</ele><time>2026-04-28T10:46:21.906Z</time></trkpt><trkpt lat="39.41589290276751" lon="9.31350367633691"><ele>747.5714285714286</ele><time>2026-04-28T10:46:22.906Z</time></trkpt><trkpt lat="39.41594819094196" lon="9.313563717436404"><ele>746.0</ele><time>2026-04-28T10:46:23.906Z</time></trkpt><trkpt lat="39.41600921939467" lon="9.313609096438721"><ele>746.0</ele><time>2026-04-28T10:46:24.906Z</time></trkpt><trkpt lat="39.41612351176748" lon="9.313674744611292"><ele>746.0</ele><time>2026-04-28T10:46:26.906Z</time></trkpt><trkpt lat="39.41618382758043" lon="9.313709973699773"><ele>746.0</ele><time>2026-04-28T10:46:27.906Z</time></trkpt><trkpt lat="39.416244209791195" lon="9.313735656462054"><ele>746.0</ele><time>2026-04-28T10:46:28.906Z</time></trkpt><trkpt lat="39.416311636959726" lon="9.313750266004345"><ele>746.0</ele><time>2026-04-28T10:46:29.906Z</time></trkpt><trkpt lat="39.41638462597847" lon="9.313761671090464"><ele>746.0</ele><time>2026-04-28T10:46:30.906Z</time></trkpt><trkpt lat="39.41645612672113" lon="9.313759117815803"><ele>744.0</ele><time>2026-04-28T10:46:31.906Z</time></trkpt><trkpt lat="39.4165262183292" lon="9.31374480574844"><ele>742.0</ele><time>2026-04-28T10:46:32.906Z</time></trkpt><trkpt lat="39.41658824055454" lon="9.313713547098708"><ele>740.0</ele><time>2026-04-28T10:46:33.906Z</time></trkpt><trkpt lat="39.41665625618115" lon="9.313727232120325"><ele>738.0</ele><time>2026-04-28T10:46:34.907Z</time></trkpt><trkpt lat="39.416726064487285" lon="9.313705029679948"><ele>736.0</ele><time>2026-04-28T10:46:35.907Z</time></trkpt><trkpt lat="39.41679455351324" lon="9.313721372857925"><ele>734.0</ele><time>2026-04-28T10:46:36.907Z</time></trkpt><trkpt lat="39.41685454808783" lon="9.313791987315769"><ele>732.0</ele><time>2026-04-28T10:46:37.907Z</time></trkpt><trkpt lat="39.416929286250415" lon="9.313828881817766"><ele>732.0</ele><time>2026-04-28T10:46:38.907Z</time></trkpt><trkpt lat="39.416988053255174" lon="9.313875400449593"><ele>732.0</ele><time>2026-04-28T10:46:39.907Z</time></trkpt><trkpt lat="39.417084537718786" lon="9.313928379327377"><ele>732.0</ele><time>2026-04-28T10:46:41.907Z</time></trkpt><trkpt lat="39.417170957593406" lon="9.31399597235749"><ele>732.0</ele><time>2026-04-28T10:46:43.907Z</time></trkpt><trkpt lat="39.417281600960166" lon="9.314044461864633"><ele>732.0</ele><time>2026-04-28T10:46:45.907Z</time></trkpt><trkpt lat="39.41738084965733" lon="9.314124295645634"><ele>734.3333333333334</ele><time>2026-04-28T10:46:47.907Z</time></trkpt><trkpt lat="39.417486616421314" lon="9.314198742027491"><ele>736.6666666666666</ele><time>2026-04-28T10:46:49.907Z</time></trkpt><trkpt lat="39.41759574953434" lon="9.314259314709227"><ele>739.0</ele><time>2026-04-28T10:46:51.907Z</time></trkpt><trkpt lat="39.41765553266941" lon="9.314286218428357"><ele>741.3333333333333</ele><time>2026-04-28T10:46:52.907Z</time></trkpt><trkpt lat="39.41771930624091" lon="9.314312411313463"><ele>743.6666666666666</ele><time>2026-04-28T10:46:53.907Z</time></trkpt><trkpt lat="39.41778067861553" lon="9.31433109800216"><ele>746.0</ele><time>2026-04-28T10:46:54.907Z</time></trkpt><trkpt lat="39.417893878685604" lon="9.314345241517337"><ele>746.5</ele><time>2026-04-28T10:46:56.907Z</time></trkpt><trkpt lat="39.417986737029814" lon="9.314316890261336"><ele>747.0</ele><time>2026-04-28T10:46:57.907Z</time></trkpt><trkpt lat="39.41806523485618" lon="9.31429108453073"><ele>747.5</ele><time>2026-04-28T10:46:58.907Z</time></trkpt><trkpt lat="39.418126826553866" lon="9.31426534935322"><ele>748.0</ele><time>2026-04-28T10:46:59.907Z</time></trkpt><trkpt lat="39.418196514655634" lon="9.314239350087957"><ele>748.5</ele><time>2026-04-28T10:47:00.907Z</time></trkpt><trkpt lat="39.41825968643629" lon="9.314174151758033"><ele>749.0</ele><time>2026-04-28T10:47:01.907Z</time></trkpt><trkpt lat="39.41830725092539" lon="9.314089941558015"><ele>749.0</ele><time>2026-04-28T10:47:02.907Z</time></trkpt><trkpt lat="39.41836517155571" lon="9.314013190919736"><ele>749.0</ele><time>2026-04-28T10:47:03.907Z</time></trkpt><trkpt lat="39.418425135266816" lon="9.313940020155401"><ele>749.0</ele><time>2026-04-28T10:47:04.907Z</time></trkpt><trkpt lat="39.41847570982691" lon="9.313868806710314"><ele>749.0</ele><time>2026-04-28T10:47:05.907Z</time></trkpt><trkpt lat="39.41852249397699" lon="9.313803750036074"><ele>749.0</ele><time>2026-04-28T10:47:06.907Z</time></trkpt><trkpt lat="39.41856382038736" lon="9.313738394881371"><ele>749.0</ele><time>2026-04-28T10:47:07.907Z</time></trkpt><trkpt lat="39.41861347638376" lon="9.313676831878986"><ele>749.0</ele><time>2026-04-28T10:47:08.907Z</time></trkpt><trkpt lat="39.41865873478479" lon="9.313617192702916"><ele>747.3333333333333</ele><time>2026-04-28T10:47:09.907Z</time></trkpt><trkpt lat="39.41870414259441" lon="9.313551448887173"><ele>745.6666666666666</ele><time>2026-04-28T10:47:10.907Z</time></trkpt><trkpt lat="39.41874721672985" lon="9.313487778002077"><ele>744.0</ele><time>2026-04-28T10:47:11.907Z</time></trkpt><trkpt lat="39.418805337165445" lon="9.313434926928952"><ele>742.3333333333334</ele><time>2026-04-28T10:47:12.907Z</time></trkpt><trkpt lat="39.41884025416287" lon="9.313354906156324"><ele>740.6666666666667</ele><time>2026-04-28T10:47:13.907Z</time></trkpt><trkpt lat="39.418924701884734" lon="9.313272788845238"><ele>739.0</ele><time>2026-04-28T10:47:15.907Z</time></trkpt><trkpt lat="39.41898946288141" lon="9.313183535713279"><ele>739.0</ele><time>2026-04-28T10:47:17.907Z</time></trkpt><trkpt lat="39.41903190401786" lon="9.313075148195706"><ele>739.0</ele><time>2026-04-28T10:47:19.907Z</time></trkpt><trkpt lat="39.41901931580296" lon="9.312971463520956"><ele>739.0</ele><time>2026-04-28T10:47:21.905Z</time></trkpt><trkpt lat="39.418956575141394" lon="9.312893425291387"><ele>739.0</ele><time>2026-04-28T10:47:23.906Z</time></trkpt><trkpt lat="39.41886449396101" lon="9.312866633739114"><ele>739.0</ele><time>2026-04-28T10:47:25.905Z</time></trkpt><trkpt lat="39.41878287190061" lon="9.312834673085408"><ele>739.0</ele><time>2026-04-28T10:47:27.905Z</time></trkpt><trkpt lat="39.418699181502774" lon="9.312782961203565"><ele>734.6</ele><time>2026-04-28T10:47:29.906Z</time></trkpt><trkpt lat="39.418610064402756" lon="9.312722482284622"><ele>730.2</ele><time>2026-04-28T10:47:31.906Z</time></trkpt><trkpt lat="39.41851175212158" lon="9.312687398568782"><ele>725.8000000000001</ele><time>2026-04-28T10:47:33.906Z</time></trkpt><trkpt lat="39.418419610979385" lon="9.312642485942467"><ele>721.4000000000001</ele><time>2026-04-28T10:47:35.906Z</time></trkpt><trkpt lat="39.41830756646748" lon="9.312619147346156"><ele>717.0</ele><time>2026-04-28T10:47:37.906Z</time></trkpt><trkpt lat="39.41820121609349" lon="9.312560529951002"><ele>717.0</ele><time>2026-04-28T10:47:39.907Z</time></trkpt><trkpt lat="39.41810404955572" lon="9.312456281705023"><ele>717.0</ele><time>2026-04-28T10:47:41.907Z</time></trkpt><trkpt lat="39.418060378259845" lon="9.31238554956222"><ele>717.0</ele><time>2026-04-28T10:47:42.907Z</time></trkpt><trkpt lat="39.41801216826122" lon="9.312318589974273"><ele>717.0</ele><time>2026-04-28T10:47:43.907Z</time></trkpt><trkpt lat="39.417981212445085" lon="9.312241304011431"><ele>717.0</ele><time>2026-04-28T10:47:44.907Z</time></trkpt><trkpt lat="39.417927982490575" lon="9.312187504628758"><ele>717.0</ele><time>2026-04-28T10:47:45.907Z</time></trkpt><trkpt lat="39.417840951778885" lon="9.312066025699838"><ele>713.1666666666666</ele><time>2026-04-28T10:47:47.907Z</time></trkpt><trkpt lat="39.417795672276654" lon="9.31199681836888"><ele>709.3333333333334</ele><time>2026-04-28T10:47:48.907Z</time></trkpt><trkpt lat="39.41775613193981" lon="9.311927534524122"><ele>705.5</ele><time>2026-04-28T10:47:49.907Z</time></trkpt><trkpt lat="39.41772252481215" lon="9.311852258090092"><ele>701.6666666666667</ele><time>2026-04-28T10:47:50.907Z</time></trkpt><trkpt lat="39.417689297101404" lon="9.311767452096552"><ele>697.8333333333334</ele><time>2026-04-28T10:47:51.907Z</time></trkpt><trkpt lat="39.41766046683866" lon="9.31168420951524"><ele>694.0</ele><time>2026-04-28T10:47:52.907Z</time></trkpt><trkpt lat="39.41761614925444" lon="9.311547140829088"><ele>694.0</ele><time>2026-04-28T10:47:54.907Z</time></trkpt><trkpt lat="39.4175877882613" lon="9.311428909743588"><ele>694.0</ele><time>2026-04-28T10:47:56.907Z</time></trkpt><trkpt lat="39.41760107539648" lon="9.311347097816205"><ele>694.0</ele><time>2026-04-28T10:47:58.907Z</time></trkpt><trkpt lat="39.417648015273365" lon="9.311262519732416"><ele>694.0</ele><time>2026-04-28T10:48:00.907Z</time></trkpt><trkpt lat="39.41771020620374" lon="9.311179531889286"><ele>694.0</ele><time>2026-04-28T10:48:02.907Z</time></trkpt><trkpt lat="39.41777388329473" lon="9.311083077647721"><ele>694.0</ele><time>2026-04-28T10:48:04.907Z</time></trkpt><trkpt lat="39.417866555658456" lon="9.3109655175455"><ele>695.6666666666667</ele><time>2026-04-28T10:48:06.907Z</time></trkpt><trkpt lat="39.41790352326949" lon="9.310866104884942"><ele>697.3333333333334</ele><time>2026-04-28T10:48:07.907Z</time></trkpt><trkpt lat="39.417950680492744" lon="9.310777219710156"><ele>699.0</ele><time>2026-04-28T10:48:08.907Z</time></trkpt><trkpt lat="39.41799290103339" lon="9.310688439008244"><ele>700.6666666666666</ele><time>2026-04-28T10:48:09.907Z</time></trkpt><trkpt lat="39.41802794214783" lon="9.3105978202434"><ele>702.3333333333333</ele><time>2026-04-28T10:48:10.907Z</time></trkpt><trkpt lat="39.41806654599425" lon="9.310496670680847"><ele>704.0</ele><time>2026-04-28T10:48:11.907Z</time></trkpt><trkpt lat="39.418121788954" lon="9.310417617789287"><ele>700.1428571428571</ele><time>2026-04-28T10:48:12.907Z</time></trkpt><trkpt lat="39.418158810910306" lon="9.310336824773229"><ele>696.2857142857142</ele><time>2026-04-28T10:48:13.907Z</time></trkpt><trkpt lat="39.41818546874909" lon="9.31023664441911"><ele>692.4285714285713</ele><time>2026-04-28T10:48:14.907Z</time></trkpt><trkpt lat="39.418226102169065" lon="9.310163403141136"><ele>688.5714285714286</ele><time>2026-04-28T10:48:15.907Z</time></trkpt><trkpt lat="39.41825975993258" lon="9.310089130784464"><ele>684.7142857142857</ele><time>2026-04-28T10:48:16.907Z</time></trkpt><trkpt lat="39.418291526062916" lon="9.310005854142064"><ele>680.8571428571428</ele><time>2026-04-28T10:48:17.907Z</time></trkpt><trkpt lat="39.41832996907545" lon="9.309920456118508"><ele>677.0</ele><time>2026-04-28T10:48:18.907Z</time></trkpt><trkpt lat="39.418382429067925" lon="9.309860933240838"><ele>676.9999999999999</ele><time>2026-04-28T10:48:19.907Z</time></trkpt><trkpt lat="39.418427957343376" lon="9.30979969353046"><ele>677.0</ele><time>2026-04-28T10:48:20.907Z</time></trkpt><trkpt lat="39.41847067264461" lon="9.309721024463135"><ele>677.0</ele><time>2026-04-28T10:48:21.907Z</time></trkpt><trkpt lat="39.41852746871978" lon="9.309669036721038"><ele>677.0</ele><time>2026-04-28T10:48:22.907Z</time></trkpt><trkpt lat="39.41858507457045" lon="9.309608695620277"><ele>677.0</ele><time>2026-04-28T10:48:23.907Z</time></trkpt><trkpt lat="39.418653071715305" lon="9.309554181934635"><ele>676.9999999999999</ele><time>2026-04-28T10:48:24.907Z</time></trkpt><trkpt lat="39.41872392421322" lon="9.309495875984924"><ele>677.0</ele><time>2026-04-28T10:48:25.907Z</time></trkpt><trkpt lat="39.41880349961686" lon="9.309460420433346"><ele>674.6666666666666</ele><time>2026-04-28T10:48:26.907Z</time></trkpt><trkpt lat="39.418869960603196" lon="9.309388635145268"><ele>672.3333333333333</ele><time>2026-04-28T10:48:27.907Z</time></trkpt><trkpt lat="39.418929837007624" lon="9.30933403075242"><ele>670.0</ele><time>2026-04-28T10:48:28.907Z</time></trkpt><trkpt lat="39.418986865347236" lon="9.309272837199474"><ele>667.6666666666666</ele><time>2026-04-28T10:48:29.907Z</time></trkpt><trkpt lat="39.419075413561195" lon="9.309190439340954"><ele>665.3333333333334</ele><time>2026-04-28T10:48:30.908Z</time></trkpt><trkpt lat="39.41915134680375" lon="9.309124629073926"><ele>663.0</ele><time>2026-04-28T10:48:31.908Z</time></trkpt><trkpt lat="39.419211922026875" lon="9.309078872146877"><ele>663.0</ele><time>2026-04-28T10:48:32.908Z</time></trkpt><trkpt lat="39.41926948801197" lon="9.309008005857397"><ele>663.0</ele><time>2026-04-28T10:48:33.908Z</time></trkpt><trkpt lat="39.4193310164185" lon="9.308954371554206"><ele>663.0</ele><time>2026-04-28T10:48:34.908Z</time></trkpt><trkpt lat="39.41938064245084" lon="9.308891764259425"><ele>663.0</ele><time>2026-04-28T10:48:35.908Z</time></trkpt><trkpt lat="39.419440426650425" lon="9.30882465965114"><ele>663.0</ele><time>2026-04-28T10:48:36.908Z</time></trkpt><trkpt lat="39.41951009117795" lon="9.308777325700094"><ele>663.0</ele><time>2026-04-28T10:48:37.908Z</time></trkpt><trkpt lat="39.41957401838125" lon="9.308718947316429"><ele>660.5714285714286</ele><time>2026-04-28T10:48:38.908Z</time></trkpt><trkpt lat="39.419643794416785" lon="9.308671780553027"><ele>658.1428571428571</ele><time>2026-04-28T10:48:39.908Z</time></trkpt><trkpt lat="39.41971667538615" lon="9.308646366366704"><ele>655.7142857142858</ele><time>2026-04-28T10:48:40.908Z</time></trkpt><trkpt lat="39.41978543001922" lon="9.308613409275225"><ele>653.2857142857142</ele><time>2026-04-28T10:48:41.908Z</time></trkpt><trkpt lat="39.41984671276693" lon="9.30857210622546"><ele>650.8571428571429</ele><time>2026-04-28T10:48:42.908Z</time></trkpt><trkpt lat="39.4199051821103" lon="9.308522903902855"><ele>648.4285714285714</ele><time>2026-04-28T10:48:43.908Z</time></trkpt><trkpt lat="39.419965375413945" lon="9.308468879901119"><ele>646.0</ele><time>2026-04-28T10:48:44.908Z</time></trkpt><trkpt lat="39.420016352438225" lon="9.30839212175642"><ele>646.0</ele><time>2026-04-28T10:48:45.908Z</time></trkpt><trkpt lat="39.420074334890096" lon="9.308334831411882"><ele>646.0</ele><time>2026-04-28T10:48:46.908Z</time></trkpt><trkpt lat="39.4201387306241" lon="9.308302507674584"><ele>646.0</ele><time>2026-04-28T10:48:47.908Z</time></trkpt><trkpt lat="39.42020190961983" lon="9.308254392145212"><ele>646.0</ele><time>2026-04-28T10:48:48.908Z</time></trkpt><trkpt lat="39.42027541633143" lon="9.308203496434068"><ele>646.0</ele><time>2026-04-28T10:48:49.908Z</time></trkpt><trkpt lat="39.42033544643504" lon="9.308163788943085"><ele>646.0</ele><time>2026-04-28T10:48:50.908Z</time></trkpt><trkpt lat="39.420411343365714" lon="9.308117912846063"><ele>646.0</ele><time>2026-04-28T10:48:51.908Z</time></trkpt><trkpt lat="39.4204772643794" lon="9.308081621282758"><ele>646.0</ele><time>2026-04-28T10:48:52.908Z</time></trkpt><trkpt lat="39.420544034210835" lon="9.308053493171498"><ele>646.0</ele><time>2026-04-28T10:48:53.908Z</time></trkpt><trkpt lat="39.42061997258516" lon="9.308019115580414"><ele>646.0</ele><time>2026-04-28T10:48:54.908Z</time></trkpt><trkpt lat="39.420695196005006" lon="9.307963798235003"><ele>646.0</ele><time>2026-04-28T10:48:55.908Z</time></trkpt><trkpt lat="39.42077419521723" lon="9.307931094781118"><ele>646.0</ele><time>2026-04-28T10:48:56.908Z</time></trkpt><trkpt lat="39.420854460865" lon="9.307899164922645"><ele>643.5</ele><time>2026-04-28T10:48:57.908Z</time></trkpt><trkpt lat="39.42093572169867" lon="9.307887751005925"><ele>641.0</ele><time>2026-04-28T10:48:58.908Z</time></trkpt><trkpt lat="39.42099077576546" lon="9.307838508299849"><ele>638.5</ele><time>2026-04-28T10:48:59.908Z</time></trkpt><trkpt lat="39.421087381440515" lon="9.307757138015903"><ele>636.0</ele><time>2026-04-28T10:49:01.908Z</time></trkpt><trkpt lat="39.42110610835602" lon="9.307670856528421"><ele>633.5</ele><time>2026-04-28T10:49:02.908Z</time></trkpt><trkpt lat="39.42113230764388" lon="9.307592792006556"><ele>631.0</ele><time>2026-04-28T10:49:03.908Z</time></trkpt><trkpt lat="39.421203088245086" lon="9.307466895900735"><ele>631.0</ele><time>2026-04-28T10:49:05.908Z</time></trkpt><trkpt lat="39.42130024316575" lon="9.307413372674622"><ele>631.0</ele><time>2026-04-28T10:49:07.908Z</time></trkpt><trkpt lat="39.4213667424732" lon="9.307412778717216"><ele>631.0</ele><time>2026-04-28T10:49:08.908Z</time></trkpt><trkpt lat="39.42144165433253" lon="9.307422249131779"><ele>631.0</ele><time>2026-04-28T10:49:09.908Z</time></trkpt><trkpt lat="39.42152489015543" lon="9.307435610167634"><ele>631.0</ele><time>2026-04-28T10:49:10.908Z</time></trkpt><trkpt lat="39.42161031501242" lon="9.307447988787379"><ele>631.0</ele><time>2026-04-28T10:49:11.908Z</time></trkpt><trkpt lat="39.42169130033089" lon="9.307455950942561"><ele>631.3333333333334</ele><time>2026-04-28T10:49:12.908Z</time></trkpt><trkpt lat="39.42176594627703" lon="9.307451458934153"><ele>631.6666666666667</ele><time>2026-04-28T10:49:13.908Z</time></trkpt><trkpt lat="39.42187756242459" lon="9.307385579630006"><ele>632.0</ele><time>2026-04-28T10:49:15.908Z</time></trkpt><trkpt lat="39.42192452882118" lon="9.307321329526511"><ele>632.3333333333334</ele><time>2026-04-28T10:49:16.908Z</time></trkpt><trkpt lat="39.421970508901" lon="9.307238683807988"><ele>632.6666666666666</ele><time>2026-04-28T10:49:17.908Z</time></trkpt><trkpt lat="39.422028092991745" lon="9.30715920012928"><ele>633.0</ele><time>2026-04-28T10:49:18.908Z</time></trkpt><trkpt lat="39.42209971029371" lon="9.307092391427407"><ele>629.1999999999999</ele><time>2026-04-28T10:49:19.908Z</time></trkpt><trkpt lat="39.422190509657064" lon="9.30703600417517"><ele>625.4</ele><time>2026-04-28T10:49:20.908Z</time></trkpt><trkpt lat="39.422289393948596" lon="9.30696384038528"><ele>621.5999999999999</ele><time>2026-04-28T10:49:21.909Z</time></trkpt><trkpt lat="39.422395830409506" lon="9.30689574141988"><ele>617.8</ele><time>2026-04-28T10:49:22.909Z</time></trkpt><trkpt lat="39.42249682736785" lon="9.306824306220662"><ele>614.0</ele><time>2026-04-28T10:49:23.909Z</time></trkpt><trkpt lat="39.422595069848306" lon="9.306748630903856"><ele>614.0</ele><time>2026-04-28T10:49:24.909Z</time></trkpt><trkpt lat="39.42269837642702" lon="9.306692814334204"><ele>614.0</ele><time>2026-04-28T10:49:25.909Z</time></trkpt><trkpt lat="39.42277748372168" lon="9.306605306159017"><ele>614.0</ele><time>2026-04-28T10:49:26.906Z</time></trkpt><trkpt lat="39.42282283955853" lon="9.30648238414788"><ele>614.0</ele><time>2026-04-28T10:49:27.906Z</time></trkpt><trkpt lat="39.422885207717236" lon="9.306357937727658"><ele>614.0</ele><time>2026-04-28T10:49:28.906Z</time></trkpt><trkpt lat="39.422958909654554" lon="9.306234850034842"><ele>611.0</ele><time>2026-04-28T10:49:29.907Z</time></trkpt><trkpt lat="39.42304399814638" lon="9.306118407734623"><ele>608.0</ele><time>2026-04-28T10:49:30.906Z</time></trkpt><trkpt lat="39.42312963206146" lon="9.305990747469657"><ele>605.0</ele><time>2026-04-28T10:49:31.906Z</time></trkpt><trkpt lat="39.42322835744678" lon="9.305876570068804"><ele>602.0</ele><time>2026-04-28T10:49:32.907Z</time></trkpt><trkpt lat="39.42332822451733" lon="9.305768262606772"><ele>602.0</ele><time>2026-04-28T10:49:33.907Z</time></trkpt><trkpt lat="39.42342711301031" lon="9.305659694095215"><ele>602.0</ele><time>2026-04-28T10:49:34.907Z</time></trkpt><trkpt lat="39.4235259256606" lon="9.305549961868687"><ele>602.0</ele><time>2026-04-28T10:49:35.906Z</time></trkpt><trkpt lat="39.42362337665209" lon="9.305438931582406"><ele>602.0</ele><time>2026-04-28T10:49:36.906Z</time></trkpt><trkpt lat="39.42372297020445" lon="9.305330433128397"><ele>599.75</ele><time>2026-04-28T10:49:37.906Z</time></trkpt><trkpt lat="39.42382632304012" lon="9.305230512879143"><ele>597.5</ele><time>2026-04-28T10:49:38.907Z</time></trkpt><trkpt lat="39.42392594892142" lon="9.305135156612547"><ele>595.25</ele><time>2026-04-28T10:49:39.906Z</time></trkpt><trkpt lat="39.42402834207734" lon="9.305049470228798"><ele>593.0</ele><time>2026-04-28T10:49:40.906Z</time></trkpt><trkpt lat="39.424140113063956" lon="9.304969886634272"><ele>593.0</ele><time>2026-04-28T10:49:41.906Z</time></trkpt><trkpt lat="39.4242511073135" lon="9.304903010612021"><ele>593.0</ele><time>2026-04-28T10:49:42.907Z</time></trkpt><trkpt lat="39.42434583877952" lon="9.304835449317833"><ele>593.0</ele><time>2026-04-28T10:49:43.907Z</time></trkpt><trkpt lat="39.42442739044763" lon="9.304763910699096"><ele>593.0</ele><time>2026-04-28T10:49:44.907Z</time></trkpt><trkpt lat="39.424494906304034" lon="9.304682833952102"><ele>593.0</ele><time>2026-04-28T10:49:45.907Z</time></trkpt><trkpt lat="39.42453906386775" lon="9.304585317314507"><ele>590.9999999999999</ele><time>2026-04-28T10:49:46.907Z</time></trkpt><trkpt lat="39.42453047107489" lon="9.304493341649632"><ele>589.0</ele><time>2026-04-28T10:49:47.907Z</time></trkpt><trkpt lat="39.424505003650445" lon="9.304401898499394"><ele>587.0</ele><time>2026-04-28T10:49:48.907Z</time></trkpt><trkpt lat="39.42447238386719" lon="9.304323053179038"><ele>585.0</ele><time>2026-04-28T10:49:49.907Z</time></trkpt><trkpt lat="39.424428558841136" lon="9.304259080096063"><ele>583.0</ele><time>2026-04-28T10:49:50.907Z</time></trkpt><trkpt lat="39.424369075418625" lon="9.30421161059277"><ele>580.9999999999999</ele><time>2026-04-28T10:49:51.907Z</time></trkpt><trkpt lat="39.42431119597141" lon="9.30415507441744"><ele>579.0</ele><time>2026-04-28T10:49:52.907Z</time></trkpt><trkpt lat="39.42431158476976" lon="9.304005932482069"><ele>579.0</ele><time>2026-04-28T10:49:54.907Z</time></trkpt><trkpt lat="39.42435420135714" lon="9.303921015124802"><ele>579.0</ele><time>2026-04-28T10:49:55.907Z</time></trkpt><trkpt lat="39.42442588674911" lon="9.303855575809443"><ele>579.0</ele><time>2026-04-28T10:49:56.907Z</time></trkpt><trkpt lat="39.42450693327985" lon="9.303797057127303"><ele>579.0</ele><time>2026-04-28T10:49:57.907Z</time></trkpt><trkpt lat="39.42459967390024" lon="9.30373697421765"><ele>579.0</ele><time>2026-04-28T10:49:58.907Z</time></trkpt><trkpt lat="39.42469051186437" lon="9.30366607949452"><ele>576.25</ele><time>2026-04-28T10:49:59.907Z</time></trkpt><trkpt lat="39.424770306166465" lon="9.303575335573615"><ele>573.5</ele><time>2026-04-28T10:50:00.907Z</time></trkpt><trkpt lat="39.424842641859094" lon="9.303459057174807"><ele>570.75</ele><time>2026-04-28T10:50:01.907Z</time></trkpt><trkpt lat="39.42491945912096" lon="9.303324514913676"><ele>568.0</ele><time>2026-04-28T10:50:02.907Z</time></trkpt><trkpt lat="39.425006551571926" lon="9.303199752675276"><ele>565.0</ele><time>2026-04-28T10:50:03.907Z</time></trkpt><trkpt lat="39.42509002814532" lon="9.303080302257094"><ele>562.0</ele><time>2026-04-28T10:50:04.907Z</time></trkpt><trkpt lat="39.42518073316028" lon="9.302966390693708"><ele>559.0</ele><time>2026-04-28T10:50:05.907Z</time></trkpt><trkpt lat="39.425286413725566" lon="9.302866419755361"><ele>556.0</ele><time>2026-04-28T10:50:06.907Z</time></trkpt><trkpt lat="39.4253981294984" lon="9.302780775544383"><ele>556.25</ele><time>2026-04-28T10:50:07.907Z</time></trkpt><trkpt lat="39.42550447556306" lon="9.302699587834107"><ele>556.5</ele><time>2026-04-28T10:50:08.907Z</time></trkpt><trkpt lat="39.42560866243238" lon="9.302609796752618"><ele>556.75</ele><time>2026-04-28T10:50:09.907Z</time></trkpt><trkpt lat="39.42570330349589" lon="9.302504501728514"><ele>557.0</ele><time>2026-04-28T10:50:10.907Z</time></trkpt><trkpt lat="39.425775155565425" lon="9.302399523218526"><ele>557.0</ele><time>2026-04-28T10:50:11.907Z</time></trkpt><trkpt lat="39.42583093084058" lon="9.302288960740828"><ele>557.0</ele><time>2026-04-28T10:50:12.907Z</time></trkpt><trkpt lat="39.425869524154926" lon="9.302164249337771"><ele>557.0</ele><time>2026-04-28T10:50:13.907Z</time></trkpt><trkpt lat="39.42589750291032" lon="9.30201937104336"><ele>557.0</ele><time>2026-04-28T10:50:14.907Z</time></trkpt><trkpt lat="39.425926397089064" lon="9.301888875083366"><ele>557.0</ele><time>2026-04-28T10:50:15.907Z</time></trkpt><trkpt lat="39.42596118990653" lon="9.301789936919054"><ele>555.1666666666666</ele><time>2026-04-28T10:50:16.907Z</time></trkpt><trkpt lat="39.42600559891116" lon="9.301727599688537"><ele>553.3333333333333</ele><time>2026-04-28T10:50:17.907Z</time></trkpt><trkpt lat="39.426111312962064" lon="9.301745400269814"><ele>551.5</ele><time>2026-04-28T10:50:19.907Z</time></trkpt><trkpt lat="39.42616887690034" lon="9.301876932380093"><ele>549.6666666666666</ele><time>2026-04-28T10:50:21.907Z</time></trkpt><trkpt lat="39.42617584498849" lon="9.301970760033301"><ele>547.8333333333334</ele><time>2026-04-28T10:50:22.907Z</time></trkpt><trkpt lat="39.42619047568819" lon="9.302068890733775"><ele>546.0</ele><time>2026-04-28T10:50:23.907Z</time></trkpt><trkpt lat="39.42622498334997" lon="9.302144412400809"><ele>546.0</ele><time>2026-04-28T10:50:24.907Z</time></trkpt><trkpt lat="39.426285717293965" lon="9.30219961738277"><ele>546.0</ele><time>2026-04-28T10:50:25.907Z</time></trkpt><trkpt lat="39.42636520314885" lon="9.302245112316221"><ele>546.0</ele><time>2026-04-28T10:50:26.907Z</time></trkpt><trkpt lat="39.42646589984719" lon="9.302277737335713"><ele>546.0</ele><time>2026-04-28T10:50:27.907Z</time></trkpt><trkpt lat="39.42658655648775" lon="9.30231144509917"><ele>546.0</ele><time>2026-04-28T10:50:28.907Z</time></trkpt><trkpt lat="39.42671503313248" lon="9.302342912938663"><ele>546.0</ele><time>2026-04-28T10:50:29.907Z</time></trkpt><trkpt lat="39.42685251962086" lon="9.302383580298004"><ele>546.0</ele><time>2026-04-28T10:50:30.907Z</time></trkpt><trkpt lat="39.42699608736272" lon="9.30243746533656"><ele>546.0</ele><time>2026-04-28T10:50:31.907Z</time></trkpt><trkpt lat="39.42714190257534" lon="9.302507890918239"><ele>546.0</ele><time>2026-04-28T10:50:32.907Z</time></trkpt><trkpt lat="39.42728342682203" lon="9.30258245979287"><ele>546.0</ele><time>2026-04-28T10:50:33.907Z</time></trkpt><trkpt lat="39.427415161064815" lon="9.302656866980572"><ele>546.0</ele><time>2026-04-28T10:50:34.908Z</time></trkpt><trkpt lat="39.42749892073849" lon="9.302723700864064"><ele>546.0</ele><time>2026-04-28T10:50:35.908Z</time></trkpt><trkpt lat="39.42755020429878" lon="9.302781838431386"><ele>546.0</ele><time>2026-04-28T10:50:36.908Z</time></trkpt><trkpt lat="39.42758604519404" lon="9.302853596544121"><ele>546.0</ele><time>2026-04-28T10:50:38.908Z</time></trkpt><trkpt lat="39.42762455794001" lon="9.302922458885375"><ele>546.0</ele><time>2026-04-28T10:50:46.908Z</time></trkpt><trkpt lat="39.427676894722715" lon="9.302981671310732"><ele>546.0</ele><time>2026-04-28T10:50:47.908Z</time></trkpt><trkpt lat="39.427751022871604" lon="9.30303506945754"><ele>546.0</ele><time>2026-04-28T10:50:48.908Z</time></trkpt><trkpt lat="39.427838503999894" lon="9.303089617804856"><ele>546.0</ele><time>2026-04-28T10:50:49.908Z</time></trkpt><trkpt lat="39.4279249770668" lon="9.30314847988307"><ele>546.0</ele><time>2026-04-28T10:50:50.908Z</time></trkpt><trkpt lat="39.42800737842096" lon="9.303235289017707"><ele>546.0</ele><time>2026-04-28T10:50:51.908Z</time></trkpt><trkpt lat="39.4280900462326" lon="9.30331764248269"><ele>546.8</ele><time>2026-04-28T10:50:52.908Z</time></trkpt><trkpt lat="39.42817746787781" lon="9.303365376532941"><ele>547.6</ele><time>2026-04-28T10:50:53.908Z</time></trkpt><trkpt lat="39.42827193426642" lon="9.303388722462191"><ele>548.4</ele><time>2026-04-28T10:50:54.908Z</time></trkpt><trkpt lat="39.42837402886095" lon="9.30340054394538"><ele>549.2</ele><time>2026-04-28T10:50:55.908Z</time></trkpt><trkpt lat="39.42846208982664" lon="9.303434929059359"><ele>550.0</ele><time>2026-04-28T10:50:56.908Z</time></trkpt><trkpt lat="39.4285288827954" lon="9.303491480833847"><ele>550.0</ele><time>2026-04-28T10:50:57.908Z</time></trkpt><trkpt lat="39.428568789678245" lon="9.303565664213222"><ele>550.0</ele><time>2026-04-28T10:50:58.908Z</time></trkpt><trkpt lat="39.42858677050337" lon="9.303726346950416"><ele>550.0</ele><time>2026-04-28T10:51:00.908Z</time></trkpt><trkpt lat="39.428573317085366" lon="9.30382769711755"><ele>550.0</ele><time>2026-04-28T10:51:01.908Z</time></trkpt><trkpt lat="39.42854826861105" lon="9.303941316579996"><ele>550.0</ele><time>2026-04-28T10:51:02.908Z</time></trkpt><trkpt lat="39.428520288095875" lon="9.304061651909171"><ele>553.25</ele><time>2026-04-28T10:51:03.908Z</time></trkpt><trkpt lat="39.42848612634653" lon="9.30419497509365"><ele>556.5</ele><time>2026-04-28T10:51:04.908Z</time></trkpt><trkpt lat="39.42844872021069" lon="9.304336048514187"><ele>559.75</ele><time>2026-04-28T10:51:05.908Z</time></trkpt><trkpt lat="39.42840185013182" lon="9.304476328549981"><ele>563.0</ele><time>2026-04-28T10:51:06.908Z</time></trkpt><trkpt lat="39.42835489214963" lon="9.3046213339712"><ele>564.6666666666666</ele><time>2026-04-28T10:51:07.908Z</time></trkpt><trkpt lat="39.428306713563536" lon="9.304758507753979"><ele>566.3333333333333</ele><time>2026-04-28T10:51:08.908Z</time></trkpt><trkpt lat="39.428273391243955" lon="9.304879475279902"><ele>568.0</ele><time>2026-04-28T10:51:09.908Z</time></trkpt><trkpt lat="39.42826017336027" lon="9.30497974064554"><ele>569.6666666666666</ele><time>2026-04-28T10:51:10.908Z</time></trkpt><trkpt lat="39.428274580325805" lon="9.305061705600158"><ele>571.3333333333334</ele><time>2026-04-28T10:51:11.908Z</time></trkpt><trkpt lat="39.42830831834754" lon="9.30513503397886"><ele>573.0</ele><time>2026-04-28T10:51:12.908Z</time></trkpt><trkpt lat="39.42836435483332" lon="9.305188713449912"><ele>573.0</ele><time>2026-04-28T10:51:13.908Z</time></trkpt><trkpt lat="39.42844287741655" lon="9.305228711398318"><ele>573.0</ele><time>2026-04-28T10:51:14.908Z</time></trkpt><trkpt lat="39.428532888924366" lon="9.305264520660817"><ele>573.0</ele><time>2026-04-28T10:51:15.908Z</time></trkpt><trkpt lat="39.42863912604581" lon="9.30529719923055"><ele>573.0</ele><time>2026-04-28T10:51:16.908Z</time></trkpt><trkpt lat="39.42875529388262" lon="9.305320857294344"><ele>573.0</ele><time>2026-04-28T10:51:17.908Z</time></trkpt><trkpt lat="39.42888045290021" lon="9.30533401302633"><ele>572.8</ele><time>2026-04-28T10:51:18.908Z</time></trkpt><trkpt lat="39.42899640984347" lon="9.305336398085533"><ele>572.5999999999999</ele><time>2026-04-28T10:51:19.908Z</time></trkpt><trkpt lat="39.42909871325584" lon="9.305311767427389"><ele>572.4000000000001</ele><time>2026-04-28T10:51:20.908Z</time></trkpt><trkpt lat="39.429189766568875" lon="9.305263116950238"><ele>572.2</ele><time>2026-04-28T10:51:21.908Z</time></trkpt><trkpt lat="39.42926341219012" lon="9.305209505211689"><ele>572.0</ele><time>2026-04-28T10:51:22.908Z</time></trkpt><trkpt lat="39.42933367273044" lon="9.305182297414127"><ele>572.0</ele><time>2026-04-28T10:51:23.908Z</time></trkpt><trkpt lat="39.42940975531522" lon="9.30519423163413"><ele>572.0</ele><time>2026-04-28T10:51:24.908Z</time></trkpt><trkpt lat="39.429473227795135" lon="9.305237740439816"><ele>572.0</ele><time>2026-04-28T10:51:25.909Z</time></trkpt><trkpt lat="39.42952758466471" lon="9.305312963425722"><ele>572.0</ele><time>2026-04-28T10:51:26.909Z</time></trkpt><trkpt lat="39.42957643568556" lon="9.305422157248238"><ele>572.0</ele><time>2026-04-28T10:51:27.909Z</time></trkpt><trkpt lat="39.42961309954791" lon="9.305549999694868"><ele>572.0</ele><time>2026-04-28T10:51:28.909Z</time></trkpt><trkpt lat="39.42966797383956" lon="9.30565338370233"><ele>574.0</ele><time>2026-04-28T10:51:29.909Z</time></trkpt><trkpt lat="39.4297371255926" lon="9.30571382973507"><ele>576.0</ele><time>2026-04-28T10:51:30.909Z</time></trkpt><trkpt lat="39.42982508732669" lon="9.305750493144625"><ele>578.0</ele><time>2026-04-28T10:51:31.909Z</time></trkpt><trkpt lat="39.42992030455458" lon="9.305778908129902"><ele>580.0</ele><time>2026-04-28T10:51:32.906Z</time></trkpt><trkpt lat="39.43003528665168" lon="9.305790080802465"><ele>582.0</ele><time>2026-04-28T10:51:33.907Z</time></trkpt><trkpt lat="39.430160323045946" lon="9.30579608074407"><ele>582.0</ele><time>2026-04-28T10:51:34.907Z</time></trkpt><trkpt lat="39.43028854243824" lon="9.305789159560916"><ele>582.0</ele><time>2026-04-28T10:51:35.906Z</time></trkpt><trkpt lat="39.430419014783276" lon="9.30578025746665"><ele>582.0</ele><time>2026-04-28T10:51:36.906Z</time></trkpt><trkpt lat="39.430556084287765" lon="9.305779100262766"><ele>582.0</ele><time>2026-04-28T10:51:37.907Z</time></trkpt><trkpt lat="39.43069633407646" lon="9.305787795475782"><ele>582.0</ele><time>2026-04-28T10:51:38.907Z</time></trkpt><trkpt lat="39.43083297604669" lon="9.305805161520095"><ele>582.0</ele><time>2026-04-28T10:51:39.906Z</time></trkpt><trkpt lat="39.43096486859502" lon="9.305826321237397"><ele>582.0</ele><time>2026-04-28T10:51:40.906Z</time></trkpt><trkpt lat="39.43109433632997" lon="9.30586223661432"><ele>582.0</ele><time>2026-04-28T10:51:41.907Z</time></trkpt><trkpt lat="39.431214118778406" lon="9.305916886630316"><ele>580.5</ele><time>2026-04-28T10:51:42.907Z</time></trkpt><trkpt lat="39.43132961079864" lon="9.3059904391895"><ele>579.0</ele><time>2026-04-28T10:51:43.907Z</time></trkpt><trkpt lat="39.43144480656548" lon="9.306087228933167"><ele>577.5</ele><time>2026-04-28T10:51:44.907Z</time></trkpt><trkpt lat="39.43156698330149" lon="9.30619096875823"><ele>576.0</ele><time>2026-04-28T10:51:45.907Z</time></trkpt><trkpt lat="39.43169122632612" lon="9.306306694766949"><ele>580.6666666666666</ele><time>2026-04-28T10:51:46.907Z</time></trkpt><trkpt lat="39.431808968218235" lon="9.306435272226691"><ele>585.3333333333333</ele><time>2026-04-28T10:51:47.907Z</time></trkpt><trkpt lat="39.431929459388236" lon="9.306573666408166"><ele>590.0</ele><time>2026-04-28T10:51:48.907Z</time></trkpt><trkpt lat="39.432051664426574" lon="9.306723464411302"><ele>583.6666666666666</ele><time>2026-04-28T10:51:49.907Z</time></trkpt><trkpt lat="39.43216693477797" lon="9.306882528799246"><ele>577.3333333333334</ele><time>2026-04-28T10:51:50.907Z</time></trkpt><trkpt lat="39.432275485629624" lon="9.30705407852185"><ele>571.0</ele><time>2026-04-28T10:51:51.907Z</time></trkpt><trkpt lat="39.43237104906407" lon="9.307222448868279"><ele>573.25</ele><time>2026-04-28T10:51:52.907Z</time></trkpt><trkpt lat="39.43245422763218" lon="9.307386618943237"><ele>575.5</ele><time>2026-04-28T10:51:53.907Z</time></trkpt><trkpt lat="39.43252264644243" lon="9.307548202927974"><ele>577.75</ele><time>2026-04-28T10:51:54.907Z</time></trkpt><trkpt lat="39.432577358583075" lon="9.30771002329833"><ele>580.0</ele><time>2026-04-28T10:51:55.907Z</time></trkpt><trkpt lat="39.43262726737675" lon="9.307865548472408"><ele>580.0</ele><time>2026-04-28T10:51:56.907Z</time></trkpt><trkpt lat="39.43265778540414" lon="9.308006556062109"><ele>580.0</ele><time>2026-04-28T10:51:57.907Z</time></trkpt><trkpt lat="39.43266768853231" lon="9.308141616060093"><ele>580.0</ele><time>2026-04-28T10:51:58.907Z</time></trkpt><trkpt lat="39.432652802142904" lon="9.308291026307995"><ele>580.0</ele><time>2026-04-28T10:51:59.907Z</time></trkpt><trkpt lat="39.43262669422799" lon="9.308458429961075"><ele>580.25</ele><time>2026-04-28T10:52:00.907Z</time></trkpt><trkpt lat="39.43259165259444" lon="9.3086419411291"><ele>580.5</ele><time>2026-04-28T10:52:01.907Z</time></trkpt><trkpt lat="39.43255876710392" lon="9.308833818398595"><ele>580.75</ele><time>2026-04-28T10:52:02.907Z</time></trkpt><trkpt lat="39.43253684318628" lon="9.30901775927909"><ele>581.0</ele><time>2026-04-28T10:52:03.907Z</time></trkpt><trkpt lat="39.43252966472812" lon="9.309190173585614"><ele>579.5</ele><time>2026-04-28T10:52:04.907Z</time></trkpt><trkpt lat="39.43254150042462" lon="9.309361915630054"><ele>578.0</ele><time>2026-04-28T10:52:05.907Z</time></trkpt><trkpt lat="39.43256489247978" lon="9.30950449092446"><ele>576.5</ele><time>2026-04-28T10:52:06.907Z</time></trkpt><trkpt lat="39.43258917053054" lon="9.309617412022563"><ele>575.0</ele><time>2026-04-28T10:52:07.907Z</time></trkpt><trkpt lat="39.4325826939296" lon="9.309767105218025"><ele>573.5</ele><time>2026-04-28T10:52:09.907Z</time></trkpt><trkpt lat="39.432537769850896" lon="9.309863718532526"><ele>572.0</ele><time>2026-04-28T10:52:10.907Z</time></trkpt><trkpt lat="39.43246636631146" lon="9.309983002732906"><ele>570.5</ele><time>2026-04-28T10:52:11.907Z</time></trkpt><trkpt lat="39.43238797909771" lon="9.31013459343547"><ele>569.0</ele><time>2026-04-28T10:52:12.907Z</time></trkpt><trkpt lat="39.432316191903155" lon="9.310276823992991"><ele>569.0</ele><time>2026-04-28T10:52:13.907Z</time></trkpt><trkpt lat="39.43227117594405" lon="9.310386024028624"><ele>569.0</ele><time>2026-04-28T10:52:14.908Z</time></trkpt><trkpt lat="39.43224429091367" lon="9.310475359187192"><ele>569.0</ele><time>2026-04-28T10:52:15.908Z</time></trkpt><trkpt lat="39.432292009780426" lon="9.310593096208182"><ele>569.0</ele><time>2026-04-28T10:52:17.908Z</time></trkpt><trkpt lat="39.432347926223045" lon="9.310646496248955"><ele>569.0</ele><time>2026-04-28T10:52:18.908Z</time></trkpt><trkpt lat="39.43242479005861" lon="9.310696933271558"><ele>569.0</ele><time>2026-04-28T10:52:19.908Z</time></trkpt><trkpt lat="39.432512750683316" lon="9.310755295553461"><ele>569.75</ele><time>2026-04-28T10:52:20.908Z</time></trkpt><trkpt lat="39.43260139632009" lon="9.310831141004245"><ele>570.5</ele><time>2026-04-28T10:52:21.908Z</time></trkpt><trkpt lat="39.432688469773865" lon="9.310929657000099"><ele>571.25</ele><time>2026-04-28T10:52:22.908Z</time></trkpt><trkpt lat="39.43277131668475" lon="9.311049767786297"><ele>572.0</ele><time>2026-04-28T10:52:23.908Z</time></trkpt><trkpt lat="39.43285007556704" lon="9.311171805634636"><ele>572.0</ele><time>2026-04-28T10:52:24.908Z</time></trkpt><trkpt lat="39.432918090470025" lon="9.311299643276252"><ele>572.0</ele><time>2026-04-28T10:52:25.908Z</time></trkpt><trkpt lat="39.43297599114027" lon="9.31143492997269"><ele>572.0</ele><time>2026-04-28T10:52:26.908Z</time></trkpt><trkpt lat="39.433034317163866" lon="9.311579561803471"><ele>572.0</ele><time>2026-04-28T10:52:27.908Z</time></trkpt><trkpt lat="39.433088300357916" lon="9.311744461603224"><ele>572.25</ele><time>2026-04-28T10:52:28.908Z</time></trkpt><trkpt lat="39.4331333619164" lon="9.311923760123205"><ele>572.5</ele><time>2026-04-28T10:52:29.908Z</time></trkpt><trkpt lat="39.433183433453095" lon="9.312109687478175"><ele>572.75</ele><time>2026-04-28T10:52:30.908Z</time></trkpt><trkpt lat="39.43323534302083" lon="9.312294361312256"><ele>573.0</ele><time>2026-04-28T10:52:31.908Z</time></trkpt><trkpt lat="39.43328470885769" lon="9.31247909859958"><ele>573.0</ele><time>2026-04-28T10:52:32.908Z</time></trkpt><trkpt lat="39.4333344658823" lon="9.31266565714022"><ele>573.0</ele><time>2026-04-28T10:52:33.908Z</time></trkpt><trkpt lat="39.43337750303416" lon="9.312852283207965"><ele>573.0</ele><time>2026-04-28T10:52:34.908Z</time></trkpt><trkpt lat="39.43341633433937" lon="9.313035089612859"><ele>573.0</ele><time>2026-04-28T10:52:35.908Z</time></trkpt><trkpt lat="39.433463620975466" lon="9.31319738305733"><ele>574.75</ele><time>2026-04-28T10:52:36.908Z</time></trkpt><trkpt lat="39.43353101044735" lon="9.313355640401321"><ele>576.5</ele><time>2026-04-28T10:52:37.908Z</time></trkpt><trkpt lat="39.43360203629313" lon="9.31351055054046"><ele>578.25</ele><time>2026-04-28T10:52:38.908Z</time></trkpt><trkpt lat="39.43368106421425" lon="9.313655558252124"><ele>580.0</ele><time>2026-04-28T10:52:39.908Z</time></trkpt><trkpt lat="39.43377127327654" lon="9.313793594630134"><ele>578.0</ele><time>2026-04-28T10:52:40.908Z</time></trkpt><trkpt lat="39.43386829973149" lon="9.313926686729447"><ele>576.0</ele><time>2026-04-28T10:52:41.908Z</time></trkpt><trkpt lat="39.433965061650845" lon="9.314060705220646"><ele>574.0</ele><time>2026-04-28T10:52:42.908Z</time></trkpt><trkpt lat="39.43405260685856" lon="9.314203402201956"><ele>572.0</ele><time>2026-04-28T10:52:43.908Z</time></trkpt><trkpt lat="39.43412961490015" lon="9.314365240673906"><ele>572.0</ele><time>2026-04-28T10:52:44.908Z</time></trkpt><trkpt lat="39.434195929921806" lon="9.314527970793693"><ele>572.0</ele><time>2026-04-28T10:52:45.908Z</time></trkpt><trkpt lat="39.43425814947511" lon="9.314677370110742"><ele>572.0</ele><time>2026-04-28T10:52:46.908Z</time></trkpt><trkpt lat="39.434317382683425" lon="9.314795419301317"><ele>572.0</ele><time>2026-04-28T10:52:47.908Z</time></trkpt><trkpt lat="39.43438225212438" lon="9.314879217919797"><ele>572.6</ele><time>2026-04-28T10:52:48.908Z</time></trkpt><trkpt lat="39.43446032064674" lon="9.31494329918848"><ele>573.2</ele><time>2026-04-28T10:52:49.908Z</time></trkpt><trkpt lat="39.434551806447274" lon="9.314984648342934"><ele>573.8</ele><time>2026-04-28T10:52:50.908Z</time></trkpt><trkpt lat="39.43466293854187" lon="9.315018204039035"><ele>574.4</ele><time>2026-04-28T10:52:51.908Z</time></trkpt><trkpt lat="39.43478103034117" lon="9.315032577690037"><ele>575.0</ele><time>2026-04-28T10:52:52.908Z</time></trkpt><trkpt lat="39.434917905636894" lon="9.315033503036869"><ele>575.0</ele><time>2026-04-28T10:52:53.908Z</time></trkpt><trkpt lat="39.43505730968567" lon="9.315033185220317"><ele>575.0</ele><time>2026-04-28T10:52:54.908Z</time></trkpt><trkpt lat="39.4351977556314" lon="9.315039270120078"><ele>575.0</ele><time>2026-04-28T10:52:55.908Z</time></trkpt><trkpt lat="39.435326705604645" lon="9.315060137908214"><ele>575.0</ele><time>2026-04-28T10:52:56.908Z</time></trkpt><trkpt lat="39.43545710189112" lon="9.315109138662919"><ele>574.25</ele><time>2026-04-28T10:52:57.908Z</time></trkpt><trkpt lat="39.43558330958518" lon="9.315162172409082"><ele>573.5</ele><time>2026-04-28T10:52:58.908Z</time></trkpt><trkpt lat="39.43570005281337" lon="9.31519828348696"><ele>572.75</ele><time>2026-04-28T10:52:59.908Z</time></trkpt><trkpt lat="39.43580911579526" lon="9.315205494962532"><ele>572.0</ele><time>2026-04-28T10:53:00.908Z</time></trkpt><trkpt lat="39.43591906652503" lon="9.315185788852467"><ele>572.0</ele><time>2026-04-28T10:53:01.908Z</time></trkpt><trkpt lat="39.43601946329202" lon="9.315158722556657"><ele>572.0</ele><time>2026-04-28T10:53:02.908Z</time></trkpt><trkpt lat="39.43612316047315" lon="9.31510396878649"><ele>572.0</ele><time>2026-04-28T10:53:03.908Z</time></trkpt><trkpt lat="39.436229804144965" lon="9.31505556461819"><ele>572.0</ele><time>2026-04-28T10:53:04.908Z</time></trkpt><trkpt lat="39.43631838307068" lon="9.315001623147502"><ele>572.0</ele><time>2026-04-28T10:53:05.908Z</time></trkpt><trkpt lat="39.43640544141947" lon="9.31495224388691"><ele>571.6666666666666</ele><time>2026-04-28T10:53:06.909Z</time></trkpt><trkpt lat="39.43646837315211" lon="9.31487174911624"><ele>571.3333333333333</ele><time>2026-04-28T10:53:07.909Z</time></trkpt><trkpt lat="39.43651759994919" lon="9.31479330522844"><ele>571.0</ele><time>2026-04-28T10:53:08.909Z</time></trkpt><trkpt lat="39.436541752712365" lon="9.314688438912826"><ele>570.6666666666666</ele><time>2026-04-28T10:53:09.909Z</time></trkpt><trkpt lat="39.43655070923019" lon="9.314579363584032"><ele>570.3333333333334</ele><time>2026-04-28T10:53:10.909Z</time></trkpt><trkpt lat="39.43650306783202" lon="9.314447695280826"><ele>570.0</ele><time>2026-04-28T10:53:11.909Z</time></trkpt><trkpt lat="39.43708516786577" lon="9.31442135092088"><ele>575.25</ele><time>2026-04-28T10:53:12.909Z</time></trkpt><trkpt lat="39.43717066209279" lon="9.314284929696887"><ele>580.5</ele><time>2026-04-28T10:53:13.909Z</time></trkpt><trkpt lat="39.43726503475205" lon="9.31414944334954"><ele>585.75</ele><time>2026-04-28T10:53:14.909Z</time></trkpt><trkpt lat="39.43736961284894" lon="9.31402486372761"><ele>591.0</ele><time>2026-04-28T10:53:15.909Z</time></trkpt><trkpt lat="39.43748491547751" lon="9.313908922464732"><ele>589.0</ele><time>2026-04-28T10:53:16.909Z</time></trkpt><trkpt lat="39.437599758811835" lon="9.313800029607414"><ele>587.0</ele><time>2026-04-28T10:53:17.909Z</time></trkpt><trkpt lat="39.43770592625889" lon="9.313720585626134"><ele>585.0</ele><time>2026-04-28T10:53:18.909Z</time></trkpt><trkpt lat="39.43779559601143" lon="9.313662443128768"><ele>583.0</ele><time>2026-04-28T10:53:19.909Z</time></trkpt><trkpt lat="39.437899906413385" lon="9.313668294335253"><ele>583.0</ele><time>2026-04-28T10:53:21.909Z</time></trkpt><trkpt lat="39.4379146922721" lon="9.313782892296196"><ele>583.0</ele><time>2026-04-28T10:53:23.909Z</time></trkpt><trkpt lat="39.437898959723626" lon="9.313872959882419"><ele>583.0</ele><time>2026-04-28T10:53:24.909Z</time></trkpt><trkpt lat="39.43786983951642" lon="9.313987280170664"><ele>583.0</ele><time>2026-04-28T10:53:25.909Z</time></trkpt><trkpt lat="39.43783473349711" lon="9.314100440328676"><ele>583.0</ele><time>2026-04-28T10:53:26.909Z</time></trkpt><trkpt lat="39.43782315164733" lon="9.314203287310633"><ele>583.0</ele><time>2026-04-28T10:53:27.909Z</time></trkpt><trkpt lat="39.437840873998276" lon="9.31432177717564"><ele>584.6</ele><time>2026-04-28T10:53:28.909Z</time></trkpt><trkpt lat="39.43787270113656" lon="9.314445061356613"><ele>586.1999999999999</ele><time>2026-04-28T10:53:29.909Z</time></trkpt><trkpt lat="39.43792411413147" lon="9.314567814891355"><ele>587.8</ele><time>2026-04-28T10:53:30.909Z</time></trkpt><trkpt lat="39.437993621988554" lon="9.31468710990032"><ele>589.4</ele><time>2026-04-28T10:53:31.909Z</time></trkpt><trkpt lat="39.43807686035446" lon="9.314799207036348"><ele>591.0</ele><time>2026-04-28T10:53:32.909Z</time></trkpt><trkpt lat="39.43816389557176" lon="9.314912746164072"><ele>595.0</ele><time>2026-04-28T10:53:33.909Z</time></trkpt><trkpt lat="39.438259207430946" lon="9.315051920801784"><ele>599.0</ele><time>2026-04-28T10:53:34.909Z</time></trkpt><trkpt lat="39.43835312923301" lon="9.315159911173168"><ele>603.0</ele><time>2026-04-28T10:53:35.909Z</time></trkpt><trkpt lat="39.43844851050016" lon="9.315262589175378"><ele>607.0</ele><time>2026-04-28T10:53:36.909Z</time></trkpt><trkpt lat="39.438539263736715" lon="9.31535973517205"><ele>607.0</ele><time>2026-04-28T10:53:37.909Z</time></trkpt><trkpt lat="39.438635921113956" lon="9.315438765563082"><ele>607.0</ele><time>2026-04-28T10:53:38.907Z</time></trkpt><trkpt lat="39.43873898438648" lon="9.315509165725679"><ele>607.0</ele><time>2026-04-28T10:53:39.907Z</time></trkpt><trkpt lat="39.438851893989536" lon="9.3155501609244"><ele>607.0</ele><time>2026-04-28T10:53:40.907Z</time></trkpt><trkpt lat="39.43896246558889" lon="9.315592582794164"><ele>609.0</ele><time>2026-04-28T10:53:41.907Z</time></trkpt><trkpt lat="39.43907830794308" lon="9.315640719420479"><ele>611.0</ele><time>2026-04-28T10:53:42.907Z</time></trkpt><trkpt lat="39.43920238966287" lon="9.315697133481896"><ele>613.0</ele><time>2026-04-28T10:53:43.907Z</time></trkpt><trkpt lat="39.43932843160371" lon="9.315758347418676"><ele>615.0</ele><time>2026-04-28T10:53:44.908Z</time></trkpt><trkpt lat="39.43945930579265" lon="9.315822452186593"><ele>615.0</ele><time>2026-04-28T10:53:45.907Z</time></trkpt><trkpt lat="39.4395930369112" lon="9.31589453828168"><ele>615.0</ele><time>2026-04-28T10:53:46.907Z</time></trkpt><trkpt lat="39.43972803878832" lon="9.315968902571871"><ele>615.0</ele><time>2026-04-28T10:53:47.907Z</time></trkpt><trkpt lat="39.439860911348106" lon="9.316041736337112"><ele>615.0</ele><time>2026-04-28T10:53:48.908Z</time></trkpt><trkpt lat="39.439995588125186" lon="9.316119918983954"><ele>616.25</ele><time>2026-04-28T10:53:49.908Z</time></trkpt><trkpt lat="39.44013523247511" lon="9.316181286170215"><ele>617.5</ele><time>2026-04-28T10:53:50.907Z</time></trkpt><trkpt lat="39.440274621438924" lon="9.316227078637139"><ele>618.75</ele><time>2026-04-28T10:53:51.908Z</time></trkpt><trkpt lat="39.440424681940875" lon="9.31625050117147"><ele>620.0</ele><time>2026-04-28T10:53:52.908Z</time></trkpt><trkpt lat="39.44057384843111" lon="9.316251823016158"><ele>623.0</ele><time>2026-04-28T10:53:53.908Z</time></trkpt><trkpt lat="39.44072191397402" lon="9.316225294883228"><ele>626.0</ele><time>2026-04-28T10:53:54.908Z</time></trkpt><trkpt lat="39.44087662757044" lon="9.316185444484685"><ele>629.0</ele><time>2026-04-28T10:53:55.908Z</time></trkpt><trkpt lat="39.44102429280347" lon="9.316125565534131"><ele>629.0</ele><time>2026-04-28T10:53:56.908Z</time></trkpt><trkpt lat="39.441172611479026" lon="9.316040141375494"><ele>629.0</ele><time>2026-04-28T10:53:57.908Z</time></trkpt><trkpt lat="39.44132203279312" lon="9.315941748553895"><ele>629.0</ele><time>2026-04-28T10:53:58.908Z</time></trkpt><trkpt lat="39.44147582184537" lon="9.315836652668397"><ele>628.3333333333333</ele><time>2026-04-28T10:53:59.908Z</time></trkpt><trkpt lat="39.44162575938849" lon="9.315727290275928"><ele>627.6666666666666</ele><time>2026-04-28T10:54:00.908Z</time></trkpt><trkpt lat="39.44177799365258" lon="9.3156190446151"><ele>627.0</ele><time>2026-04-28T10:54:01.908Z</time></trkpt><trkpt lat="39.44192661021213" lon="9.31552094252294"><ele>628.5</ele><time>2026-04-28T10:54:02.908Z</time></trkpt><trkpt lat="39.442072711440986" lon="9.31543655354403"><ele>630.0</ele><time>2026-04-28T10:54:03.908Z</time></trkpt><trkpt lat="39.442210447231574" lon="9.315375176783032"><ele>631.5</ele><time>2026-04-28T10:54:04.908Z</time></trkpt><trkpt lat="39.44234742549478" lon="9.31534404024715"><ele>633.0</ele><time>2026-04-28T10:54:05.908Z</time></trkpt><trkpt lat="39.44248391685869" lon="9.315341138923648"><ele>633.0</ele><time>2026-04-28T10:54:06.908Z</time></trkpt><trkpt lat="39.44263067960242" lon="9.31535606558839"><ele>633.0</ele><time>2026-04-28T10:54:07.908Z</time></trkpt><trkpt lat="39.44278153128198" lon="9.315375110942746"><ele>633.0</ele><time>2026-04-28T10:54:08.908Z</time></trkpt><trkpt lat="39.44294104423881" lon="9.315395200984463"><ele>634.3333333333334</ele><time>2026-04-28T10:54:09.908Z</time></trkpt><trkpt lat="39.443107247792284" lon="9.315411765124688"><ele>635.6666666666667</ele><time>2026-04-28T10:54:10.908Z</time></trkpt><trkpt lat="39.44327983197428" lon="9.31542129284627"><ele>637.0</ele><time>2026-04-28T10:54:11.908Z</time></trkpt><trkpt lat="39.443456266599604" lon="9.315430717142382"><ele>637.0</ele><time>2026-04-28T10:54:12.908Z</time></trkpt><trkpt lat="39.44363583464685" lon="9.31545016661844"><ele>637.0</ele><time>2026-04-28T10:54:13.908Z</time></trkpt><trkpt lat="39.44381029934049" lon="9.315477674243233"><ele>637.0</ele><time>2026-04-28T10:54:14.908Z</time></trkpt><trkpt lat="39.44396716937446" lon="9.315495601403393"><ele>638.75</ele><time>2026-04-28T10:54:15.908Z</time></trkpt><trkpt lat="39.4441141855351" lon="9.315495151537466"><ele>640.5</ele><time>2026-04-28T10:54:16.908Z</time></trkpt><trkpt lat="39.44425575174189" lon="9.315476661932129"><ele>642.25</ele><time>2026-04-28T10:54:17.908Z</time></trkpt><trkpt lat="39.444393344744455" lon="9.315425218276063"><ele>644.0</ele><time>2026-04-28T10:54:18.908Z</time></trkpt><trkpt lat="39.44451000029122" lon="9.315336952103852"><ele>644.0</ele><time>2026-04-28T10:54:19.908Z</time></trkpt><trkpt lat="39.44461361246076" lon="9.315222184516232"><ele>644.0</ele><time>2026-04-28T10:54:20.908Z</time></trkpt><trkpt lat="39.44471776449988" lon="9.315074378238068"><ele>644.0</ele><time>2026-04-28T10:54:21.908Z</time></trkpt><trkpt lat="39.44481472064979" lon="9.314922659534387"><ele>644.0</ele><time>2026-04-28T10:54:22.908Z</time></trkpt><trkpt lat="39.444913922375946" lon="9.314780617335373"><ele>644.25</ele><time>2026-04-28T10:54:23.908Z</time></trkpt><trkpt lat="39.4450133339184" lon="9.314663632478766"><ele>644.5</ele><time>2026-04-28T10:54:24.908Z</time></trkpt><trkpt lat="39.44511663268086" lon="9.314575376821617"><ele>644.75</ele><time>2026-04-28T10:54:25.908Z</time></trkpt><trkpt lat="39.44522321983797" lon="9.314521656970706"><ele>645.0</ele><time>2026-04-28T10:54:26.908Z</time></trkpt><trkpt lat="39.44532989863598" lon="9.314500576129863"><ele>645.0</ele><time>2026-04-28T10:54:27.908Z</time></trkpt><trkpt lat="39.44544267486689" lon="9.314507391632024"><ele>645.0</ele><time>2026-04-28T10:54:28.908Z</time></trkpt><trkpt lat="39.44555374637102" lon="9.314544328804924"><ele>645.0</ele><time>2026-04-28T10:54:29.908Z</time></trkpt><trkpt lat="39.44565530134226" lon="9.314621250699657"><ele>645.0</ele><time>2026-04-28T10:54:30.908Z</time></trkpt><trkpt lat="39.445753661803124" lon="9.314731389029955"><ele>645.25</ele><time>2026-04-28T10:54:31.908Z</time></trkpt><trkpt lat="39.44583690243196" lon="9.314868025764934"><ele>645.5</ele><time>2026-04-28T10:54:32.908Z</time></trkpt><trkpt lat="39.44591339336545" lon="9.315031153512411"><ele>645.75</ele><time>2026-04-28T10:54:33.908Z</time></trkpt><trkpt lat="39.44599010562615" lon="9.31521086594903"><ele>646.0</ele><time>2026-04-28T10:54:34.908Z</time></trkpt><trkpt lat="39.446076858884624" lon="9.315398768373147"><ele>645.6666666666667</ele><time>2026-04-28T10:54:35.908Z</time></trkpt><trkpt lat="39.44616485968321" lon="9.315577586972367"><ele>645.3333333333334</ele><time>2026-04-28T10:54:36.908Z</time></trkpt><trkpt lat="39.44625574858019" lon="9.315747916465705"><ele>645.0</ele><time>2026-04-28T10:54:37.908Z</time></trkpt><trkpt lat="39.44633237844984" lon="9.315915560623331"><ele>649.75</ele><time>2026-04-28T10:54:38.909Z</time></trkpt><trkpt lat="39.44638914234694" lon="9.31607266149943"><ele>654.5</ele><time>2026-04-28T10:54:39.909Z</time></trkpt><trkpt lat="39.446422353690814" lon="9.316234401618079"><ele>659.25</ele><time>2026-04-28T10:54:40.909Z</time></trkpt><trkpt lat="39.446430527085695" lon="9.316391748851263"><ele>664.0</ele><time>2026-04-28T10:54:41.909Z</time></trkpt><trkpt lat="39.44641194159214" lon="9.31655148566007"><ele>664.0</ele><time>2026-04-28T10:54:42.909Z</time></trkpt><trkpt lat="39.44636376503095" lon="9.316709349362698"><ele>664.0</ele><time>2026-04-28T10:54:43.909Z</time></trkpt><trkpt lat="39.44628609557658" lon="9.316864512160564"><ele>664.0</ele><time>2026-04-28T10:54:44.909Z</time></trkpt><trkpt lat="39.44619267110568" lon="9.317018493238258"><ele>664.0</ele><time>2026-04-28T10:54:45.909Z</time></trkpt><trkpt lat="39.4460926294579" lon="9.317181691479192"><ele>661.6666666666667</ele><time>2026-04-28T10:54:46.909Z</time></trkpt><trkpt lat="39.44598827464589" lon="9.317357229040681"><ele>659.3333333333334</ele><time>2026-04-28T10:54:47.909Z</time></trkpt><trkpt lat="39.44587511568779" lon="9.317547403494933"><ele>657.0</ele><time>2026-04-28T10:54:48.909Z</time></trkpt><trkpt lat="39.44576372200296" lon="9.317735546850354"><ele>657.0</ele><time>2026-04-28T10:54:49.909Z</time></trkpt><trkpt lat="39.445652709272885" lon="9.31792106415587"><ele>657.0</ele><time>2026-04-28T10:54:50.909Z</time></trkpt><trkpt lat="39.44554329411511" lon="9.318103552330808"><ele>657.0</ele><time>2026-04-28T10:54:51.909Z</time></trkpt><trkpt lat="39.44544338571349" lon="9.318267894086773"><ele>655.0</ele><time>2026-04-28T10:54:52.909Z</time></trkpt><trkpt lat="39.44534452609577" lon="9.318435152427705"><ele>653.0</ele><time>2026-04-28T10:54:53.909Z</time></trkpt><trkpt lat="39.445259986128725" lon="9.318590674355898"><ele>651.0</ele><time>2026-04-28T10:54:54.909Z</time></trkpt><trkpt lat="39.445197278287125" lon="9.318737379858923"><ele>649.0</ele><time>2026-04-28T10:54:55.909Z</time></trkpt><trkpt lat="39.44515861983181" lon="9.318883015241855"><ele>652.25</ele><time>2026-04-28T10:54:56.909Z</time></trkpt><trkpt lat="39.44514645095736" lon="9.319032304092353"><ele>655.5</ele><time>2026-04-28T10:54:57.909Z</time></trkpt><trkpt lat="39.44515325049579" lon="9.319187607503784"><ele>658.75</ele><time>2026-04-28T10:54:58.909Z</time></trkpt><trkpt lat="39.445177304850304" lon="9.319343711071829"><ele>662.0</ele><time>2026-04-28T10:54:59.909Z</time></trkpt><trkpt lat="39.4452223066086" lon="9.319494090317113"><ele>662.0</ele><time>2026-04-28T10:55:00.909Z</time></trkpt><trkpt lat="39.445290864660386" lon="9.319631840281247"><ele>662.0</ele><time>2026-04-28T10:55:01.909Z</time></trkpt><trkpt lat="39.445381594147996" lon="9.319757689560845"><ele>662.0</ele><time>2026-04-28T10:55:02.909Z</time></trkpt><trkpt lat="39.4454846387284" lon="9.319861852956508"><ele>662.0</ele><time>2026-04-28T10:55:03.909Z</time></trkpt><trkpt lat="39.44560369816456" lon="9.31993589346222"><ele>662.25</ele><time>2026-04-28T10:55:04.909Z</time></trkpt><trkpt lat="39.44573502643349" lon="9.319969217905172"><ele>662.5</ele><time>2026-04-28T10:55:05.909Z</time></trkpt><trkpt lat="39.44587272491124" lon="9.319985640633101"><ele>662.75</ele><time>2026-04-28T10:55:06.909Z</time></trkpt><trkpt lat="39.44602368239114" lon="9.319996370265288"><ele>663.0</ele><time>2026-04-28T10:55:07.909Z</time></trkpt><trkpt lat="39.44619257388571" lon="9.32000919865636"><ele>664.6666666666666</ele><time>2026-04-28T10:55:08.909Z</time></trkpt><trkpt lat="39.446370609329264" lon="9.32000371312642"><ele>666.3333333333333</ele><time>2026-04-28T10:55:09.909Z</time></trkpt><trkpt lat="39.44655710249474" lon="9.32000917118602"><ele>668.0</ele><time>2026-04-28T10:55:10.909Z</time></trkpt><trkpt lat="39.44674539221414" lon="9.320012793066269"><ele>668.0</ele><time>2026-04-28T10:55:11.909Z</time></trkpt><trkpt lat="39.44694256906378" lon="9.320022687176463"><ele>668.0</ele><time>2026-04-28T10:55:12.909Z</time></trkpt><trkpt lat="39.447145030309485" lon="9.320024886163575"><ele>668.0</ele><time>2026-04-28T10:55:13.909Z</time></trkpt><trkpt lat="39.44735241006142" lon="9.320025343232844"><ele>671.0</ele><time>2026-04-28T10:55:14.909Z</time></trkpt><trkpt lat="39.44756579095792" lon="9.320025839179399"><ele>674.0</ele><time>2026-04-28T10:55:15.909Z</time></trkpt><trkpt lat="39.44778246556457" lon="9.320021476210034"><ele>677.0</ele><time>2026-04-28T10:55:16.909Z</time></trkpt><trkpt lat="39.448012234962604" lon="9.320017344056032"><ele>677.3333333333333</ele><time>2026-04-28T10:55:17.909Z</time></trkpt><trkpt lat="39.44822632904164" lon="9.3200118834856"><ele>677.6666666666666</ele><time>2026-04-28T10:55:18.909Z</time></trkpt><trkpt lat="39.44845214426524" lon="9.320022650888488"><ele>678.0</ele><time>2026-04-28T10:55:19.909Z</time></trkpt><trkpt lat="39.44867591284933" lon="9.32000547893546"><ele>678.5</ele><time>2026-04-28T10:55:20.909Z</time></trkpt><trkpt lat="39.44890400437228" lon="9.319994939536578"><ele>679.0</ele><time>2026-04-28T10:55:21.909Z</time></trkpt><trkpt lat="39.44913020902566" lon="9.319983645167833"><ele>679.0</ele><time>2026-04-28T10:55:22.909Z</time></trkpt><trkpt lat="39.44935794099355" lon="9.319978519673626"><ele>679.0</ele><time>2026-04-28T10:55:23.909Z</time></trkpt><trkpt lat="39.4495890993113" lon="9.319970496275891"><ele>679.5</ele><time>2026-04-28T10:55:24.909Z</time></trkpt><trkpt lat="39.44981935299879" lon="9.319959474928696"><ele>680.0</ele><time>2026-04-28T10:55:25.909Z</time></trkpt><trkpt lat="39.450047290156775" lon="9.319946335802411"><ele>680.0</ele><time>2026-04-28T10:55:26.909Z</time></trkpt><trkpt lat="39.45027423423832" lon="9.31993170317172"><ele>680.0</ele><time>2026-04-28T10:55:27.91Z</time></trkpt><trkpt lat="39.45049389686469" lon="9.319918956807713"><ele>680.0</ele><time>2026-04-28T10:55:28.91Z</time></trkpt><trkpt lat="39.45072449918399" lon="9.319907532681675"><ele>677.5</ele><time>2026-04-28T10:55:29.91Z</time></trkpt><trkpt lat="39.45095550148505" lon="9.319883411150895"><ele>675.0</ele><time>2026-04-28T10:55:30.91Z</time></trkpt><trkpt lat="39.45118210290478" lon="9.319863792675186"><ele>673.5</ele><time>2026-04-28T10:55:31.91Z</time></trkpt><trkpt lat="39.4514087421824" lon="9.319853183101566"><ele>672.0</ele><time>2026-04-28T10:55:32.91Z</time></trkpt><trkpt lat="39.451636707498956" lon="9.319838401780205"><ele>672.0</ele><time>2026-04-28T10:55:33.91Z</time></trkpt><trkpt lat="39.451862186588755" lon="9.319823396688484"><ele>672.0</ele><time>2026-04-28T10:55:34.91Z</time></trkpt><trkpt lat="39.45208888286463" lon="9.319805825058813"><ele>671.0</ele><time>2026-04-28T10:55:35.91Z</time></trkpt><trkpt lat="39.45231211721397" lon="9.319790078380208"><ele>670.0</ele><time>2026-04-28T10:55:36.91Z</time></trkpt><trkpt lat="39.452540259961864" lon="9.319773896656908"><ele>670.0</ele><time>2026-04-28T10:55:37.91Z</time></trkpt><trkpt lat="39.452765986976544" lon="9.319760104830788"><ele>670.0</ele><time>2026-04-28T10:55:38.91Z</time></trkpt><trkpt lat="39.452982883857715" lon="9.319744117361454"><ele>670.0</ele><time>2026-04-28T10:55:39.91Z</time></trkpt><trkpt lat="39.45321251522193" lon="9.319727033778834"><ele>670.5</ele><time>2026-04-28T10:55:40.91Z</time></trkpt><trkpt lat="39.45344353145286" lon="9.319712121298638"><ele>671.0</ele><time>2026-04-28T10:55:41.91Z</time></trkpt><trkpt lat="39.45367307822855" lon="9.319697756454039"><ele>669.0</ele><time>2026-04-28T10:55:42.91Z</time></trkpt><trkpt lat="39.45390118691863" lon="9.319680201007083"><ele>667.0</ele><time>2026-04-28T10:55:43.91Z</time></trkpt><trkpt lat="39.454129344260025" lon="9.319657100763807"><ele>667.0</ele><time>2026-04-28T10:55:44.908Z</time></trkpt><trkpt lat="39.454359197249744" lon="9.31963750892919"><ele>667.0</ele><time>2026-04-28T10:55:45.908Z</time></trkpt><trkpt lat="39.45458476047281" lon="9.319623276134767"><ele>665.6666666666667</ele><time>2026-04-28T10:55:46.908Z</time></trkpt><trkpt lat="39.45480444672049" lon="9.319608491337917"><ele>664.3333333333334</ele><time>2026-04-28T10:55:47.908Z</time></trkpt><trkpt lat="39.455017082042914" lon="9.319595098743996"><ele>663.0</ele><time>2026-04-28T10:55:48.908Z</time></trkpt><trkpt lat="39.45522133069892" lon="9.319583791053681"><ele>663.0</ele><time>2026-04-28T10:55:49.908Z</time></trkpt><trkpt lat="39.455424007335175" lon="9.319575378502401"><ele>663.0</ele><time>2026-04-28T10:55:50.908Z</time></trkpt><trkpt lat="39.45561962869022" lon="9.319578422785392"><ele>663.0</ele><time>2026-04-28T10:55:51.907Z</time></trkpt><trkpt lat="39.45581702176222" lon="9.31959408213786"><ele>663.6666666666666</ele><time>2026-04-28T10:55:52.907Z</time></trkpt><trkpt lat="39.456012905472235" lon="9.319625948913808"><ele>664.3333333333333</ele><time>2026-04-28T10:55:53.908Z</time></trkpt><trkpt lat="39.456207650229956" lon="9.319674648173802"><ele>665.0</ele><time>2026-04-28T10:55:54.908Z</time></trkpt><trkpt lat="39.45640035745875" lon="9.319735059476184"><ele>663.6666666666666</ele><time>2026-04-28T10:55:55.908Z</time></trkpt><trkpt lat="39.45658850983831" lon="9.319811591643534"><ele>662.3333333333334</ele><time>2026-04-28T10:55:56.908Z</time></trkpt><trkpt lat="39.45677819075257" lon="9.319904779454365"><ele>661.0</ele><time>2026-04-28T10:55:57.908Z</time></trkpt><trkpt lat="39.45696897285744" lon="9.320018259903625"><ele>659.0</ele><time>2026-04-28T10:55:58.908Z</time></trkpt><trkpt lat="39.45716045214467" lon="9.320153217044776"><ele>657.0</ele><time>2026-04-28T10:55:59.908Z</time></trkpt><trkpt lat="39.45733940514609" lon="9.32031912983368"><ele>655.0</ele><time>2026-04-28T10:56:00.908Z</time></trkpt><trkpt lat="39.45753552905416" lon="9.320457875234595"><ele>654.0</ele><time>2026-04-28T10:56:01.908Z</time></trkpt><trkpt lat="39.45772436056641" lon="9.320613386141478"><ele>653.0</ele><time>2026-04-28T10:56:02.908Z</time></trkpt><trkpt lat="39.45791663428005" lon="9.320770709440094"><ele>655.5</ele><time>2026-04-28T10:56:03.908Z</time></trkpt><trkpt lat="39.4581105426822" lon="9.320926719059676"><ele>658.0</ele><time>2026-04-28T10:56:04.908Z</time></trkpt><trkpt lat="39.458302672922116" lon="9.321086082673178"><ele>658.0</ele><time>2026-04-28T10:56:05.908Z</time></trkpt><trkpt lat="39.45849644595677" lon="9.321246235378151"><ele>658.0</ele><time>2026-04-28T10:56:06.908Z</time></trkpt><trkpt lat="39.45869098716132" lon="9.321400919978535"><ele>658.0</ele><time>2026-04-28T10:56:07.908Z</time></trkpt><trkpt lat="39.45888730858711" lon="9.321554728391801"><ele>658.0</ele><time>2026-04-28T10:56:08.908Z</time></trkpt><trkpt lat="39.45907720597871" lon="9.321706609223765"><ele>658.0</ele><time>2026-04-28T10:56:09.908Z</time></trkpt><trkpt lat="39.459268062792525" lon="9.321861812787139"><ele>658.0</ele><time>2026-04-28T10:56:10.908Z</time></trkpt><trkpt lat="39.459461375162746" lon="9.322017390359596"><ele>658.5</ele><time>2026-04-28T10:56:11.908Z</time></trkpt><trkpt lat="39.459654259235265" lon="9.322174101824762"><ele>659.0</ele><time>2026-04-28T10:56:12.908Z</time></trkpt><trkpt lat="39.45984955758839" lon="9.322331987014772"><ele>658.0</ele><time>2026-04-28T10:56:13.908Z</time></trkpt><trkpt lat="39.46004741970015" lon="9.322490808474907"><ele>657.0</ele><time>2026-04-28T10:56:14.908Z</time></trkpt><trkpt lat="39.46023686784708" lon="9.32266569124783"><ele>657.0</ele><time>2026-04-28T10:56:15.908Z</time></trkpt><trkpt lat="39.460436094524354" lon="9.32282555947625"><ele>657.0</ele><time>2026-04-28T10:56:16.908Z</time></trkpt><trkpt lat="39.4606459918729" lon="9.322969949123008"><ele>655.5</ele><time>2026-04-28T10:56:17.908Z</time></trkpt><trkpt lat="39.4608454145907" lon="9.323132201131612"><ele>654.0</ele><time>2026-04-28T10:56:18.908Z</time></trkpt><trkpt lat="39.46103693945965" lon="9.323309070924996"><ele>654.0</ele><time>2026-04-28T10:56:19.908Z</time></trkpt><trkpt lat="39.46123977735361" lon="9.323446571064139"><ele>654.0</ele><time>2026-04-28T10:56:20.908Z</time></trkpt><trkpt lat="39.46143314137628" lon="9.32360347501212"><ele>652.5</ele><time>2026-04-28T10:56:21.909Z</time></trkpt><trkpt lat="39.46162583936016" lon="9.323764626476043"><ele>651.0</ele><time>2026-04-28T10:56:22.909Z</time></trkpt><trkpt lat="39.46182468877606" lon="9.323924968292138"><ele>651.0</ele><time>2026-04-28T10:56:23.909Z</time></trkpt><trkpt lat="39.4620286006404" lon="9.32408597269997"><ele>651.0</ele><time>2026-04-28T10:56:24.909Z</time></trkpt><trkpt lat="39.46222820041818" lon="9.324243189034553"><ele>647.5</ele><time>2026-04-28T10:56:25.909Z</time></trkpt><trkpt lat="39.46242659479681" lon="9.324399268887664"><ele>644.0</ele><time>2026-04-28T10:56:26.909Z</time></trkpt><trkpt lat="39.46261457241886" lon="9.324575162591149"><ele>644.5</ele><time>2026-04-28T10:56:27.909Z</time></trkpt><trkpt lat="39.462807517960876" lon="9.324731127449166"><ele>645.0</ele><time>2026-04-28T10:56:28.909Z</time></trkpt><trkpt lat="39.46300122189633" lon="9.324887840934853"><ele>643.6666666666666</ele><time>2026-04-28T10:56:29.909Z</time></trkpt><trkpt lat="39.46319348953023" lon="9.325041651597793"><ele>642.3333333333333</ele><time>2026-04-28T10:56:30.909Z</time></trkpt><trkpt lat="39.46338589377615" lon="9.325174700232878"><ele>641.0</ele><time>2026-04-28T10:56:31.909Z</time></trkpt><trkpt lat="39.463556704602055" lon="9.325319190373618"><ele>641.0</ele><time>2026-04-28T10:56:32.909Z</time></trkpt><trkpt lat="39.46372134440863" lon="9.32546878201614"><ele>641.0</ele><time>2026-04-28T10:56:33.909Z</time></trkpt><trkpt lat="39.463882819847" lon="9.325631730583524"><ele>641.0</ele><time>2026-04-28T10:56:34.909Z</time></trkpt><trkpt lat="39.46404099963562" lon="9.325806307747461"><ele>641.0</ele><time>2026-04-28T10:56:35.909Z</time></trkpt><trkpt lat="39.46419570730116" lon="9.325985257572084"><ele>641.0</ele><time>2026-04-28T10:56:36.909Z</time></trkpt><trkpt lat="39.464343249788264" lon="9.326174395988195"><ele>641.0</ele><time>2026-04-28T10:56:37.909Z</time></trkpt><trkpt lat="39.464485872355525" lon="9.326376316758225"><ele>639.3333333333333</ele><time>2026-04-28T10:56:38.909Z</time></trkpt><trkpt lat="39.46461205669741" lon="9.326603941391014"><ele>637.6666666666666</ele><time>2026-04-28T10:56:39.909Z</time></trkpt><trkpt lat="39.46474258076922" lon="9.32683036251405"><ele>636.0</ele><time>2026-04-28T10:56:40.909Z</time></trkpt><trkpt lat="39.46487266776732" lon="9.327057833062849"><ele>634.5</ele><time>2026-04-28T10:56:41.909Z</time></trkpt><trkpt lat="39.46500383355321" lon="9.327289419086135"><ele>633.0</ele><time>2026-04-28T10:56:42.909Z</time></trkpt><trkpt lat="39.46513657898578" lon="9.327529468329255"><ele>633.0</ele><time>2026-04-28T10:56:43.909Z</time></trkpt><trkpt lat="39.46527316149378" lon="9.327781204265857"><ele>633.0</ele><time>2026-04-28T10:56:44.909Z</time></trkpt><trkpt lat="39.46540589111698" lon="9.328027837565712"><ele>632.0</ele><time>2026-04-28T10:56:45.909Z</time></trkpt><trkpt lat="39.4655412601851" lon="9.328274589353244"><ele>631.0</ele><time>2026-04-28T10:56:46.909Z</time></trkpt><trkpt lat="39.465679757107274" lon="9.328524073666436"><ele>631.0</ele><time>2026-04-28T10:56:47.909Z</time></trkpt><trkpt lat="39.46581828318313" lon="9.328775629014638"><ele>631.0</ele><time>2026-04-28T10:56:48.909Z</time></trkpt><trkpt lat="39.46595765757776" lon="9.329023968556516"><ele>628.0</ele><time>2026-04-28T10:56:49.909Z</time></trkpt><trkpt lat="39.46609689085338" lon="9.3292710237675"><ele>625.0</ele><time>2026-04-28T10:56:50.909Z</time></trkpt><trkpt lat="39.4662374222541" lon="9.329521262475422"><ele>625.5</ele><time>2026-04-28T10:56:51.909Z</time></trkpt><trkpt lat="39.4663762662669" lon="9.329769424100865"><ele>626.0</ele><time>2026-04-28T10:56:52.909Z</time></trkpt><trkpt lat="39.46651144205112" lon="9.330010558381964"><ele>626.0</ele><time>2026-04-28T10:56:53.909Z</time></trkpt><trkpt lat="39.4666429511783" lon="9.330250883547164"><ele>626.0</ele><time>2026-04-28T10:56:54.909Z</time></trkpt><trkpt lat="39.46677171945368" lon="9.330488458346808"><ele>627.0</ele><time>2026-04-28T10:56:55.909Z</time></trkpt><trkpt lat="39.466902783916076" lon="9.330724778276217"><ele>628.0</ele><time>2026-04-28T10:56:56.909Z</time></trkpt><trkpt lat="39.46703621882678" lon="9.330962421519613"><ele>627.5</ele><time>2026-04-28T10:56:57.909Z</time></trkpt><trkpt lat="39.46716566517485" lon="9.331200890607906"><ele>627.0</ele><time>2026-04-28T10:56:58.909Z</time></trkpt><trkpt lat="39.46729632442847" lon="9.331439925286011"><ele>627.0</ele><time>2026-04-28T10:56:59.909Z</time></trkpt><trkpt lat="39.46742844257202" lon="9.331679984292757"><ele>627.0</ele><time>2026-04-28T10:57:00.909Z</time></trkpt><trkpt lat="39.46756278699777" lon="9.331919796613123"><ele>627.0</ele><time>2026-04-28T10:57:01.909Z</time></trkpt><trkpt lat="39.467695836456144" lon="9.33215851970908"><ele>627.0</ele><time>2026-04-28T10:57:02.909Z</time></trkpt><trkpt lat="39.46782954653145" lon="9.3323997197583"><ele>625.5</ele><time>2026-04-28T10:57:03.909Z</time></trkpt><trkpt lat="39.46796406559583" lon="9.332643006119323"><ele>624.0</ele><time>2026-04-28T10:57:04.909Z</time></trkpt><trkpt lat="39.468098226497396" lon="9.332889502321983"><ele>624.0</ele><time>2026-04-28T10:57:05.909Z</time></trkpt><trkpt lat="39.468232661121405" lon="9.333135393423923"><ele>624.0</ele><time>2026-04-28T10:57:06.909Z</time></trkpt><trkpt lat="39.468368100093656" lon="9.333383819400158"><ele>624.0</ele><time>2026-04-28T10:57:07.909Z</time></trkpt><trkpt lat="39.46850071594578" lon="9.333623134007079"><ele>624.0</ele><time>2026-04-28T10:57:08.909Z</time></trkpt><trkpt lat="39.46862933510026" lon="9.333852157211254"><ele>624.0</ele><time>2026-04-28T10:57:09.909Z</time></trkpt><trkpt lat="39.468750628318155" lon="9.334070343828815"><ele>623.6666666666666</ele><time>2026-04-28T10:57:10.909Z</time></trkpt><trkpt lat="39.468871738327216" lon="9.334287089470612"><ele>623.3333333333333</ele><time>2026-04-28T10:57:11.909Z</time></trkpt><trkpt lat="39.468989192878645" lon="9.33450305977937"><ele>623.0</ele><time>2026-04-28T10:57:12.909Z</time></trkpt><trkpt lat="39.46910740132606" lon="9.334716841062212"><ele>622.3333333333333</ele><time>2026-04-28T10:57:13.91Z</time></trkpt><trkpt lat="39.46922648209371" lon="9.334930553142323"><ele>621.6666666666666</ele><time>2026-04-28T10:57:14.91Z</time></trkpt><trkpt lat="39.46934855398374" lon="9.335146286614673"><ele>621.0</ele><time>2026-04-28T10:57:15.91Z</time></trkpt><trkpt lat="39.46947345263618" lon="9.33537032814783"><ele>620.6666666666666</ele><time>2026-04-28T10:57:16.91Z</time></trkpt><trkpt lat="39.46960022175265" lon="9.335598360790053"><ele>620.3333333333333</ele><time>2026-04-28T10:57:17.91Z</time></trkpt><trkpt lat="39.46972957556685" lon="9.335829019512184"><ele>620.0</ele><time>2026-04-28T10:57:18.91Z</time></trkpt><trkpt lat="39.469860063836165" lon="9.336064712726275"><ele>620.0</ele><time>2026-04-28T10:57:19.91Z</time></trkpt><trkpt lat="39.46999175596198" lon="9.33630229380995"><ele>620.0</ele><time>2026-04-28T10:57:20.91Z</time></trkpt><trkpt lat="39.470124518749834" lon="9.336540895003514"><ele>616.5</ele><time>2026-04-28T10:57:21.91Z</time></trkpt><trkpt lat="39.47025523519418" lon="9.336780435696214"><ele>613.0</ele><time>2026-04-28T10:57:22.91Z</time></trkpt><trkpt lat="39.470388658232345" lon="9.337023946703265"><ele>610.0</ele><time>2026-04-28T10:57:23.91Z</time></trkpt><trkpt lat="39.47052025178791" lon="9.337264718359872"><ele>607.0</ele><time>2026-04-28T10:57:24.91Z</time></trkpt><trkpt lat="39.47065149846136" lon="9.337507986763692"><ele>607.0</ele><time>2026-04-28T10:57:25.91Z</time></trkpt><trkpt lat="39.47078407630412" lon="9.337750995114948"><ele>607.0</ele><time>2026-04-28T10:57:26.91Z</time></trkpt><trkpt lat="39.47091710392226" lon="9.337990685399497"><ele>606.0</ele><time>2026-04-28T10:57:27.91Z</time></trkpt><trkpt lat="39.471049149704285" lon="9.338229181823133"><ele>605.0</ele><time>2026-04-28T10:57:28.91Z</time></trkpt><trkpt lat="39.47118185085947" lon="9.338469351560237"><ele>604.6666666666666</ele><time>2026-04-28T10:57:29.91Z</time></trkpt><trkpt lat="39.47130903369296" lon="9.338698852285866"><ele>604.3333333333334</ele><time>2026-04-28T10:57:30.91Z</time></trkpt><trkpt lat="39.47143457458038" lon="9.338917882879038"><ele>604.0</ele><time>2026-04-28T10:57:31.91Z</time></trkpt><trkpt lat="39.47155424629339" lon="9.3391292691826"><ele>604.6666666666667</ele><time>2026-04-28T10:57:32.91Z</time></trkpt><trkpt lat="39.471658825324795" lon="9.339352863268356"><ele>605.3333333333334</ele><time>2026-04-28T10:57:33.91Z</time></trkpt><trkpt lat="39.471776378591976" lon="9.339552313158812"><ele>606.0</ele><time>2026-04-28T10:57:34.91Z</time></trkpt><trkpt lat="39.47190040768773" lon="9.339727313038274"><ele>606.0</ele><time>2026-04-28T10:57:35.91Z</time></trkpt><trkpt lat="39.47204158308175" lon="9.339865316114107"><ele>606.0</ele><time>2026-04-28T10:57:36.91Z</time></trkpt><trkpt lat="39.47218135583574" lon="9.340004403369573"><ele>606.0</ele><time>2026-04-28T10:57:37.91Z</time></trkpt><trkpt lat="39.47233674154231" lon="9.340136050440393"><ele>606.0</ele><time>2026-04-28T10:57:38.91Z</time></trkpt><trkpt lat="39.472501207378656" lon="9.340256787622518"><ele>606.0</ele><time>2026-04-28T10:57:39.91Z</time></trkpt><trkpt lat="39.472670906869396" lon="9.340373099195613"><ele>606.0</ele><time>2026-04-28T10:57:40.91Z</time></trkpt><trkpt lat="39.472846989572844" lon="9.340486678396369"><ele>606.0</ele><time>2026-04-28T10:57:41.91Z</time></trkpt><trkpt lat="39.47302741190299" lon="9.34060303316843"><ele>606.0</ele><time>2026-04-28T10:57:42.91Z</time></trkpt><trkpt lat="39.47321047298252" lon="9.340722252517027"><ele>606.0</ele><time>2026-04-28T10:57:43.91Z</time></trkpt><trkpt lat="39.4733906676837" lon="9.340839463088304"><ele>606.0</ele><time>2026-04-28T10:57:44.91Z</time></trkpt><trkpt lat="39.473567868621565" lon="9.340955735095372"><ele>606.0</ele><time>2026-04-28T10:57:45.91Z</time></trkpt><trkpt lat="39.47374940315189" lon="9.34107783458261"><ele>606.0</ele><time>2026-04-28T10:57:46.91Z</time></trkpt><trkpt lat="39.473931122033854" lon="9.341196137541592"><ele>606.0</ele><time>2026-04-28T10:57:47.91Z</time></trkpt><trkpt lat="39.474109077801394" lon="9.3413158483093"><ele>606.0</ele><time>2026-04-28T10:57:48.91Z</time></trkpt><trkpt lat="39.47428652214651" lon="9.341435592489715"><ele>606.0</ele><time>2026-04-28T10:57:49.91Z</time></trkpt><trkpt lat="39.474458523253475" lon="9.341544041901267"><ele>605.6666666666666</ele><time>2026-04-28T10:57:50.908Z</time></trkpt><trkpt lat="39.47462748534633" lon="9.341644942236737"><ele>605.3333333333333</ele><time>2026-04-28T10:57:51.908Z</time></trkpt><trkpt lat="39.47478852966859" lon="9.341755506019213"><ele>605.0</ele><time>2026-04-28T10:57:52.908Z</time></trkpt><trkpt lat="39.47495766516392" lon="9.341826574850463"><ele>605.0</ele><time>2026-04-28T10:57:53.908Z</time></trkpt><trkpt lat="39.47513380278296" lon="9.341877670699853"><ele>605.0</ele><time>2026-04-28T10:57:54.909Z</time></trkpt><trkpt lat="39.47531772163632" lon="9.34187315034173"><ele>605.0</ele><time>2026-04-28T10:57:55.909Z</time></trkpt><trkpt lat="39.475502879630085" lon="9.341881504629713"><ele>604.3333333333333</ele><time>2026-04-28T10:57:56.909Z</time></trkpt><trkpt lat="39.475697640643354" lon="9.341884396128615"><ele>603.6666666666666</ele><time>2026-04-28T10:57:57.909Z</time></trkpt><trkpt lat="39.47589819986512" lon="9.341878943406583"><ele>603.0</ele><time>2026-04-28T10:57:58.909Z</time></trkpt><trkpt lat="39.476106917223625" lon="9.341880041382206"><ele>602.0</ele><time>2026-04-28T10:57:59.908Z</time></trkpt><trkpt lat="39.47631859318683" lon="9.34187580291867"><ele>601.0</ele><time>2026-04-28T10:58:00.909Z</time></trkpt><trkpt lat="39.47653895296668" lon="9.341872837723912"><ele>600.0</ele><time>2026-04-28T10:58:01.909Z</time></trkpt><trkpt lat="39.47676021379751" lon="9.341872465445524"><ele>600.0</ele><time>2026-04-28T10:58:02.909Z</time></trkpt><trkpt lat="39.476984954954744" lon="9.341872170599627"><ele>600.0</ele><time>2026-04-28T10:58:03.909Z</time></trkpt><trkpt lat="39.47719968277929" lon="9.341869373438454"><ele>600.0</ele><time>2026-04-28T10:58:04.909Z</time></trkpt><trkpt lat="39.47739927513284" lon="9.341865347946044"><ele>599.6666666666666</ele><time>2026-04-28T10:58:05.909Z</time></trkpt><trkpt lat="39.47758594957433" lon="9.34186040985013"><ele>599.3333333333333</ele><time>2026-04-28T10:58:06.909Z</time></trkpt><trkpt lat="39.47776126234092" lon="9.341862166951943"><ele>599.0</ele><time>2026-04-28T10:58:07.909Z</time></trkpt><trkpt lat="39.47791708080274" lon="9.341877373366781"><ele>598.25</ele><time>2026-04-28T10:58:08.909Z</time></trkpt><trkpt lat="39.47806124790693" lon="9.341905302725216"><ele>597.5</ele><time>2026-04-28T10:58:09.909Z</time></trkpt><trkpt lat="39.47819604038551" lon="9.341958788571036"><ele>596.75</ele><time>2026-04-28T10:58:10.909Z</time></trkpt><trkpt lat="39.47832996614429" lon="9.34204185673284"><ele>596.0</ele><time>2026-04-28T10:58:11.909Z</time></trkpt><trkpt lat="39.478451312519326" lon="9.342169825759226"><ele>596.0</ele><time>2026-04-28T10:58:12.909Z</time></trkpt><trkpt lat="39.478559760902925" lon="9.342297149177949"><ele>596.0</ele><time>2026-04-28T10:58:13.909Z</time></trkpt><trkpt lat="39.478657673757574" lon="9.342439764153983"><ele>596.0</ele><time>2026-04-28T10:58:14.909Z</time></trkpt><trkpt lat="39.4787353234295" lon="9.342593494556803"><ele>596.0</ele><time>2026-04-28T10:58:15.909Z</time></trkpt><trkpt lat="39.478793555460825" lon="9.34277476346025"><ele>594.6666666666666</ele><time>2026-04-28T10:58:16.909Z</time></trkpt><trkpt lat="39.47886171004299" lon="9.34297681713105"><ele>593.3333333333334</ele><time>2026-04-28T10:58:17.909Z</time></trkpt><trkpt lat="39.478934111289405" lon="9.343187869657612"><ele>592.0</ele><time>2026-04-28T10:58:18.909Z</time></trkpt><trkpt lat="39.47900710489621" lon="9.343406958504099"><ele>590.3333333333334</ele><time>2026-04-28T10:58:19.909Z</time></trkpt><trkpt lat="39.479081057046756" lon="9.343629847937095"><ele>588.6666666666666</ele><time>2026-04-28T10:58:20.909Z</time></trkpt><trkpt lat="39.479157323508566" lon="9.343859711824573"><ele>587.0</ele><time>2026-04-28T10:58:21.909Z</time></trkpt><trkpt lat="39.47923469096658" lon="9.3440928941755"><ele>584.3333333333333</ele><time>2026-04-28T10:58:22.909Z</time></trkpt><trkpt lat="39.479328792627754" lon="9.344325065654264"><ele>581.6666666666666</ele><time>2026-04-28T10:58:23.909Z</time></trkpt><trkpt lat="39.479410996255446" lon="9.344572283942826"><ele>579.0</ele><time>2026-04-28T10:58:24.909Z</time></trkpt><trkpt lat="39.4794951198863" lon="9.344826039325136"><ele>576.0</ele><time>2026-04-28T10:58:25.909Z</time></trkpt><trkpt lat="39.47957985486858" lon="9.3450861835116"><ele>573.0</ele><time>2026-04-28T10:58:26.909Z</time></trkpt><trkpt lat="39.479666807450705" lon="9.345351001243845"><ele>570.0</ele><time>2026-04-28T10:58:27.909Z</time></trkpt><trkpt lat="39.47975301309698" lon="9.34561532140648"><ele>568.0</ele><time>2026-04-28T10:58:28.909Z</time></trkpt><trkpt lat="39.47983733022701" lon="9.345881816395408"><ele>566.0</ele><time>2026-04-28T10:58:29.909Z</time></trkpt><trkpt lat="39.47992445209031" lon="9.34614699645029"><ele>564.0</ele><time>2026-04-28T10:58:30.909Z</time></trkpt><trkpt lat="39.480012566233825" lon="9.34641466370595"><ele>563.3333333333334</ele><time>2026-04-28T10:58:31.909Z</time></trkpt><trkpt lat="39.4801002154512" lon="9.346678769563106"><ele>562.6666666666667</ele><time>2026-04-28T10:58:32.909Z</time></trkpt><trkpt lat="39.4801890151274" lon="9.346940304979155"><ele>562.0</ele><time>2026-04-28T10:58:33.909Z</time></trkpt><trkpt lat="39.48027606484709" lon="9.347200919788062"><ele>561.3333333333334</ele><time>2026-04-28T10:58:34.909Z</time></trkpt><trkpt lat="39.480362384736125" lon="9.347462193447042"><ele>560.6666666666666</ele><time>2026-04-28T10:58:35.909Z</time></trkpt><trkpt lat="39.480446841441704" lon="9.347726914462157"><ele>560.0</ele><time>2026-04-28T10:58:36.909Z</time></trkpt><trkpt lat="39.4805306845066" lon="9.34798346574185"><ele>560.0</ele><time>2026-04-28T10:58:37.909Z</time></trkpt><trkpt lat="39.480615562537025" lon="9.34824386200718"><ele>560.0</ele><time>2026-04-28T10:58:38.909Z</time></trkpt><trkpt lat="39.480703696537226" lon="9.348495778537092"><ele>560.0</ele><time>2026-04-28T10:58:39.909Z</time></trkpt><trkpt lat="39.480790805206986" lon="9.348747732815578"><ele>559.6666666666666</ele><time>2026-04-28T10:58:40.909Z</time></trkpt><trkpt lat="39.480874295734885" lon="9.349003276454999"><ele>559.3333333333334</ele><time>2026-04-28T10:58:41.909Z</time></trkpt><trkpt lat="39.48095613259979" lon="9.349259273585599"><ele>559.0</ele><time>2026-04-28T10:58:42.91Z</time></trkpt><trkpt lat="39.481041214187655" lon="9.34951575017627"><ele>559.0</ele><time>2026-04-28T10:58:43.91Z</time></trkpt><trkpt lat="39.48112621995591" lon="9.349775220031324"><ele>559.0</ele><time>2026-04-28T10:58:44.91Z</time></trkpt><trkpt lat="39.48121222746257" lon="9.35003575958518"><ele>559.0</ele><time>2026-04-28T10:58:45.91Z</time></trkpt><trkpt lat="39.481300469045365" lon="9.350296963532815"><ele>558.0</ele><time>2026-04-28T10:58:46.91Z</time></trkpt><trkpt lat="39.48138936121863" lon="9.35056182079562"><ele>557.0</ele><time>2026-04-28T10:58:47.91Z</time></trkpt><trkpt lat="39.48147696357224" lon="9.350831922323783"><ele>556.0</ele><time>2026-04-28T10:58:48.91Z</time></trkpt><trkpt lat="39.48156674642529" lon="9.351107209128465"><ele>554.5</ele><time>2026-04-28T10:58:49.91Z</time></trkpt><trkpt lat="39.48165513389328" lon="9.351380167673009"><ele>553.0</ele><time>2026-04-28T10:58:50.91Z</time></trkpt><trkpt lat="39.481744261548684" lon="9.3516517415454"><ele>553.0</ele><time>2026-04-28T10:58:51.91Z</time></trkpt><trkpt lat="39.48183350791288" lon="9.351919510553458"><ele>553.0</ele><time>2026-04-28T10:58:52.91Z</time></trkpt><trkpt lat="39.481920134690654" lon="9.352183333756384"><ele>553.0</ele><time>2026-04-28T10:58:53.91Z</time></trkpt><trkpt lat="39.48200608794016" lon="9.352440086971523"><ele>552.0</ele><time>2026-04-28T10:58:54.91Z</time></trkpt><trkpt lat="39.48209122042072" lon="9.352691278340336"><ele>551.0</ele><time>2026-04-28T10:58:55.91Z</time></trkpt><trkpt lat="39.48217870166449" lon="9.352935398455504"><ele>550.0</ele><time>2026-04-28T10:58:56.91Z</time></trkpt><trkpt lat="39.48226123303661" lon="9.353171846136892"><ele>552.6666666666667</ele><time>2026-04-28T10:58:57.91Z</time></trkpt><trkpt lat="39.48234740029252" lon="9.353400508744134"><ele>555.3333333333334</ele><time>2026-04-28T10:58:58.91Z</time></trkpt><trkpt lat="39.48244563247485" lon="9.353611530257481"><ele>558.0</ele><time>2026-04-28T10:58:59.91Z</time></trkpt><trkpt lat="39.48255301423047" lon="9.353816922316339"><ele>558.6666666666666</ele><time>2026-04-28T10:59:00.91Z</time></trkpt><trkpt lat="39.482673239655405" lon="9.354015129650564"><ele>559.3333333333333</ele><time>2026-04-28T10:59:01.91Z</time></trkpt><trkpt lat="39.4828013461238" lon="9.354214675359652"><ele>560.0</ele><time>2026-04-28T10:59:02.91Z</time></trkpt><trkpt lat="39.482935606523505" lon="9.354412230089904"><ele>560.0</ele><time>2026-04-28T10:59:03.91Z</time></trkpt><trkpt lat="39.483076207165425" lon="9.354612984571009"><ele>560.0</ele><time>2026-04-28T10:59:04.91Z</time></trkpt><trkpt lat="39.48321958393846" lon="9.354816633941464"><ele>560.0</ele><time>2026-04-28T10:59:05.91Z</time></trkpt><trkpt lat="39.483364422115315" lon="9.355025663865714"><ele>560.5</ele><time>2026-04-28T10:59:06.91Z</time></trkpt><trkpt lat="39.48351360254008" lon="9.355242104284514"><ele>561.0</ele><time>2026-04-28T10:59:07.91Z</time></trkpt><trkpt lat="39.48366684656169" lon="9.355462095639268"><ele>559.6666666666666</ele><time>2026-04-28T10:59:08.91Z</time></trkpt><trkpt lat="39.48381895172107" lon="9.355678353593445"><ele>558.3333333333333</ele><time>2026-04-28T10:59:09.91Z</time></trkpt><trkpt lat="39.483958383356615" lon="9.355875114237064"><ele>557.0</ele><time>2026-04-28T10:59:10.91Z</time></trkpt><trkpt lat="39.48408970749936" lon="9.356062938450874"><ele>557.0</ele><time>2026-04-28T10:59:11.91Z</time></trkpt><trkpt lat="39.48421468764585" lon="9.35623989320245"><ele>557.0</ele><time>2026-04-28T10:59:12.91Z</time></trkpt><trkpt lat="39.48432008002819" lon="9.356393322570101"><ele>557.0</ele><time>2026-04-28T10:59:13.91Z</time></trkpt><trkpt lat="39.48441325310741" lon="9.356527550634997"><ele>557.0</ele><time>2026-04-28T10:59:14.91Z</time></trkpt><trkpt lat="39.484492515760515" lon="9.356646911681779"><ele>557.0</ele><time>2026-04-28T10:59:15.91Z</time></trkpt><trkpt lat="39.48455701665498" lon="9.356767675717748"><ele>557.0</ele><time>2026-04-28T10:59:16.91Z</time></trkpt><trkpt lat="39.484608500557734" lon="9.35691032207895"><ele>557.0</ele><time>2026-04-28T10:59:17.91Z</time></trkpt><trkpt lat="39.48466034891166" lon="9.35707839890004"><ele>558.6666666666666</ele><time>2026-04-28T10:59:18.91Z</time></trkpt><trkpt lat="39.484713564943476" lon="9.357263189206918"><ele>560.3333333333334</ele><time>2026-04-28T10:59:19.91Z</time></trkpt><trkpt lat="39.48477156900558" lon="9.357458784035465"><ele>562.0</ele><time>2026-04-28T10:59:20.91Z</time></trkpt><trkpt lat="39.48482980581881" lon="9.357658713127075"><ele>562.0</ele><time>2026-04-28T10:59:21.91Z</time></trkpt><trkpt lat="39.48488450503292" lon="9.357850620004223"><ele>562.0</ele><time>2026-04-28T10:59:22.91Z</time></trkpt><trkpt lat="39.484931848432986" lon="9.358017748372001"><ele>562.0</ele><time>2026-04-28T10:59:23.91Z</time></trkpt><trkpt lat="39.484970962094046" lon="9.358179795150617"><ele>562.0</ele><time>2026-04-28T10:59:24.91Z</time></trkpt><trkpt lat="39.485001933891134" lon="9.358318078046013"><ele>561.8000000000001</ele><time>2026-04-28T10:59:25.91Z</time></trkpt><trkpt lat="39.4850035615789" lon="9.358435222424797"><ele>561.6</ele><time>2026-04-28T10:59:26.91Z</time></trkpt><trkpt lat="39.48500528677202" lon="9.358536363075817"><ele>561.4000000000001</ele><time>2026-04-28T10:59:27.91Z</time></trkpt><trkpt lat="39.4851163629466" lon="9.358620164086947"><ele>561.2</ele><time>2026-04-28T10:59:28.91Z</time></trkpt><trkpt lat="39.485192965913996" lon="9.358662570426343"><ele>561.0</ele><time>2026-04-28T10:59:29.91Z</time></trkpt><trkpt lat="39.48526539927362" lon="9.358748726225201"><ele>561.0</ele><time>2026-04-28T10:59:30.91Z</time></trkpt><trkpt lat="39.48536273851931" lon="9.358829155782589"><ele>561.0</ele><time>2026-04-28T10:59:31.91Z</time></trkpt><trkpt lat="39.48547140278003" lon="9.358919595792631"><ele>561.0</ele><time>2026-04-28T10:59:32.91Z</time></trkpt><trkpt lat="39.48558958095658" lon="9.359022809016228"><ele>561.0</ele><time>2026-04-28T10:59:33.91Z</time></trkpt><trkpt lat="39.485713930803236" lon="9.359134538373135"><ele>563.0</ele><time>2026-04-28T10:59:34.911Z</time></trkpt><trkpt lat="39.485840390425615" lon="9.359252804051824"><ele>565.0</ele><time>2026-04-28T10:59:35.911Z</time></trkpt><trkpt lat="39.4859623655344" lon="9.359372846365236"><ele>567.0</ele><time>2026-04-28T10:59:36.911Z</time></trkpt><trkpt lat="39.48607760560129" lon="9.359501938809597"><ele>567.0</ele><time>2026-04-28T10:59:37.911Z</time></trkpt><trkpt lat="39.48619304385645" lon="9.359641717008468"><ele>567.0</ele><time>2026-04-28T10:59:38.911Z</time></trkpt><trkpt lat="39.48629196830588" lon="9.359789840876582"><ele>567.0</ele><time>2026-04-28T10:59:39.911Z</time></trkpt><trkpt lat="39.48637673990981" lon="9.35994913884162"><ele>567.3333333333334</ele><time>2026-04-28T10:59:40.911Z</time></trkpt><trkpt lat="39.48645518202548" lon="9.360125424877577"><ele>567.6666666666667</ele><time>2026-04-28T10:59:41.911Z</time></trkpt><trkpt lat="39.48653019537411" lon="9.3603099599888"><ele>568.0</ele><time>2026-04-28T10:59:42.911Z</time></trkpt><trkpt lat="39.48660652969728" lon="9.360503786149405"><ele>568.25</ele><time>2026-04-28T10:59:43.911Z</time></trkpt><trkpt lat="39.48667112778458" lon="9.360677572167633"><ele>568.5</ele><time>2026-04-28T10:59:44.911Z</time></trkpt><trkpt lat="39.48672758318875" lon="9.36084964788727"><ele>568.75</ele><time>2026-04-28T10:59:45.911Z</time></trkpt><trkpt lat="39.486799392020835" lon="9.3610017393796"><ele>569.0</ele><time>2026-04-28T10:59:46.911Z</time></trkpt><trkpt lat="39.48688725690022" lon="9.361131025181157"><ele>569.0</ele><time>2026-04-28T10:59:47.911Z</time></trkpt><trkpt lat="39.48699818506935" lon="9.361231312545868"><ele>569.0</ele><time>2026-04-28T10:59:48.911Z</time></trkpt><trkpt lat="39.48711444836166" lon="9.361287021648739"><ele>569.0</ele><time>2026-04-28T10:59:49.911Z</time></trkpt><trkpt lat="39.48722736483194" lon="9.361337977334578"><ele>569.0</ele><time>2026-04-28T10:59:50.911Z</time></trkpt><trkpt lat="39.48734467247527" lon="9.361362575920186"><ele>566.0</ele><time>2026-04-28T10:59:51.911Z</time></trkpt><trkpt lat="39.48746028558701" lon="9.361353528828316"><ele>563.0</ele><time>2026-04-28T10:59:52.911Z</time></trkpt><trkpt lat="39.487581781912745" lon="9.361314110050122"><ele>560.0</ele><time>2026-04-28T10:59:53.911Z</time></trkpt><trkpt lat="39.48770355186536" lon="9.361244262751901"><ele>557.0</ele><time>2026-04-28T10:59:54.911Z</time></trkpt><trkpt lat="39.48782816392626" lon="9.361158902336559"><ele>555.6666666666666</ele><time>2026-04-28T10:59:55.911Z</time></trkpt><trkpt lat="39.487954736263106" lon="9.36105765196381"><ele>554.3333333333334</ele><time>2026-04-28T10:59:56.909Z</time></trkpt><trkpt lat="39.48809062015543" lon="9.360957803222375"><ele>553.0</ele><time>2026-04-28T10:59:57.909Z</time></trkpt><trkpt lat="39.488233164467225" lon="9.360874302339422"><ele>553.0</ele><time>2026-04-28T10:59:58.909Z</time></trkpt><trkpt lat="39.48838611899763" lon="9.360796376548274"><ele>553.0</ele><time>2026-04-28T10:59:59.909Z</time></trkpt><trkpt lat="39.48855521730028" lon="9.360737686587319"><ele>553.0</ele><time>2026-04-28T11:00:00.91Z</time></trkpt><trkpt lat="39.48872772227124" lon="9.360690224676505"><ele>553.3333333333334</ele><time>2026-04-28T11:00:01.91Z</time></trkpt><trkpt lat="39.48890425025478" lon="9.360640588298656"><ele>553.6666666666666</ele><time>2026-04-28T11:00:02.909Z</time></trkpt><trkpt lat="39.48908598997704" lon="9.36058655843818"><ele>554.0</ele><time>2026-04-28T11:00:03.909Z</time></trkpt><trkpt lat="39.489268203344686" lon="9.36053147919983"><ele>550.6666666666666</ele><time>2026-04-28T11:00:04.909Z</time></trkpt><trkpt lat="39.48945742817017" lon="9.360474138471467"><ele>547.3333333333334</ele><time>2026-04-28T11:00:05.91Z</time></trkpt><trkpt lat="39.48964366956495" lon="9.360421764786302"><ele>544.0</ele><time>2026-04-28T11:00:06.91Z</time></trkpt><trkpt lat="39.48983451335874" lon="9.360365341776275"><ele>544.0</ele><time>2026-04-28T11:00:07.91Z</time></trkpt><trkpt lat="39.49002889826186" lon="9.360304699946552"><ele>544.0</ele><time>2026-04-28T11:00:08.91Z</time></trkpt><trkpt lat="39.490220995447736" lon="9.360247077204052"><ele>544.0</ele><time>2026-04-28T11:00:09.909Z</time></trkpt><trkpt lat="39.49040885410363" lon="9.360183508950398"><ele>543.6666666666667</ele><time>2026-04-28T11:00:10.909Z</time></trkpt><trkpt lat="39.490585615861654" lon="9.360127612418738"><ele>543.3333333333334</ele><time>2026-04-28T11:00:11.909Z</time></trkpt><trkpt lat="39.49075805051694" lon="9.360077002911343"><ele>543.0</ele><time>2026-04-28T11:00:12.909Z</time></trkpt><trkpt lat="39.49092554423134" lon="9.360038754707556"><ele>543.0</ele><time>2026-04-28T11:00:13.909Z</time></trkpt><trkpt lat="39.491080362618824" lon="9.360002790613352"><ele>543.0</ele><time>2026-04-28T11:00:14.909Z</time></trkpt><trkpt lat="39.49121398912707" lon="9.359986506810435"><ele>543.0</ele><time>2026-04-28T11:00:15.909Z</time></trkpt><trkpt lat="39.49134662712082" lon="9.359998330601178"><ele>543.0</ele><time>2026-04-28T11:00:16.909Z</time></trkpt><trkpt lat="39.49148518677113" lon="9.360035629255117"><ele>542.0</ele><time>2026-04-28T11:00:17.909Z</time></trkpt><trkpt lat="39.491620356200514" lon="9.360095715286526"><ele>541.0</ele><time>2026-04-28T11:00:18.91Z</time></trkpt><trkpt lat="39.49175506269562" lon="9.360157754889642"><ele>540.0</ele><time>2026-04-28T11:00:19.91Z</time></trkpt><trkpt lat="39.49188776822" lon="9.360198626248309"><ele>539.0</ele><time>2026-04-28T11:00:20.91Z</time></trkpt><trkpt lat="39.4920261440932" lon="9.360210671049188"><ele>538.5</ele><time>2026-04-28T11:00:21.91Z</time></trkpt><trkpt lat="39.49215967609049" lon="9.360194652009605"><ele>538.0</ele><time>2026-04-28T11:00:22.91Z</time></trkpt><trkpt lat="39.49228579747763" lon="9.360151655080536"><ele>537.5</ele><time>2026-04-28T11:00:23.91Z</time></trkpt><trkpt lat="39.4924060897138" lon="9.36007832395052"><ele>537.0</ele><time>2026-04-28T11:00:24.91Z</time></trkpt><trkpt lat="39.4925255741743" lon="9.359976605535467"><ele>537.0</ele><time>2026-04-28T11:00:25.91Z</time></trkpt><trkpt lat="39.49264563902162" lon="9.359859382817254"><ele>537.0</ele><time>2026-04-28T11:00:26.91Z</time></trkpt><trkpt lat="39.4927703384577" lon="9.359721495520343"><ele>537.0</ele><time>2026-04-28T11:00:27.91Z</time></trkpt><trkpt lat="39.49290067104943" lon="9.359579404149542"><ele>534.3333333333334</ele><time>2026-04-28T11:00:28.91Z</time></trkpt><trkpt lat="39.49303300715865" lon="9.359430332947142"><ele>531.6666666666667</ele><time>2026-04-28T11:00:29.91Z</time></trkpt><trkpt lat="39.493167305056296" lon="9.359284784374939"><ele>529.0</ele><time>2026-04-28T11:00:30.91Z</time></trkpt><trkpt lat="39.493294653692665" lon="9.359154165390983"><ele>529.0</ele><time>2026-04-28T11:00:31.91Z</time></trkpt><trkpt lat="39.493425112365735" lon="9.359034268564024"><ele>529.0</ele><time>2026-04-28T11:00:32.91Z</time></trkpt><trkpt lat="39.49356542201803" lon="9.358925355801453"><ele>529.0</ele><time>2026-04-28T11:00:33.91Z</time></trkpt><trkpt lat="39.493712647144136" lon="9.35883914962082"><ele>522.6666666666667</ele><time>2026-04-28T11:00:34.91Z</time></trkpt><trkpt lat="39.49387404190344" lon="9.358765004254037"><ele>516.3333333333334</ele><time>2026-04-28T11:00:35.91Z</time></trkpt><trkpt lat="39.49403660923969" lon="9.35870008496493"><ele>510.0</ele><time>2026-04-28T11:00:36.91Z</time></trkpt><trkpt lat="39.494215652180706" lon="9.358623423786936"><ele>510.0</ele><time>2026-04-28T11:00:37.91Z</time></trkpt><trkpt lat="39.49438852074621" lon="9.358553822934864"><ele>510.0</ele><time>2026-04-28T11:00:38.91Z</time></trkpt><trkpt lat="39.49454980112107" lon="9.35849524672167"><ele>510.0</ele><time>2026-04-28T11:00:39.91Z</time></trkpt><trkpt lat="39.494699343385" lon="9.3584602429519"><ele>514.0</ele><time>2026-04-28T11:00:40.91Z</time></trkpt><trkpt lat="39.494845294954416" lon="9.358446915753964"><ele>518.0</ele><time>2026-04-28T11:00:41.91Z</time></trkpt><trkpt lat="39.49499960961297" lon="9.358459909461928"><ele>522.0</ele><time>2026-04-28T11:00:42.91Z</time></trkpt><trkpt lat="39.49515568701342" lon="9.358493936130817"><ele>522.0</ele><time>2026-04-28T11:00:43.91Z</time></trkpt><trkpt lat="39.49531474223438" lon="9.358547294102289"><ele>522.0</ele><time>2026-04-28T11:00:44.91Z</time></trkpt><trkpt lat="39.495475268309235" lon="9.358611755498616"><ele>522.0</ele><time>2026-04-28T11:00:45.91Z</time></trkpt><trkpt lat="39.495644081604134" lon="9.358672030142467"><ele>522.3333333333334</ele><time>2026-04-28T11:00:46.91Z</time></trkpt><trkpt lat="39.49581146081616" lon="9.358716258326616"><ele>522.6666666666667</ele><time>2026-04-28T11:00:47.91Z</time></trkpt><trkpt lat="39.49598152257896" lon="9.358765408590221"><ele>523.0</ele><time>2026-04-28T11:00:48.91Z</time></trkpt><trkpt lat="39.49615761501029" lon="9.35876601665756"><ele>524.6666666666667</ele><time>2026-04-28T11:00:49.91Z</time></trkpt><trkpt lat="39.49633032644624" lon="9.358721864924982"><ele>526.3333333333334</ele><time>2026-04-28T11:00:50.91Z</time></trkpt><trkpt lat="39.4965139913982" lon="9.358691324159652"><ele>528.0</ele><time>2026-04-28T11:00:51.91Z</time></trkpt><trkpt lat="39.4967019424846" lon="9.358640248350968"><ele>528.0</ele><time>2026-04-28T11:00:52.91Z</time></trkpt><trkpt lat="39.496891455439545" lon="9.358588494220994"><ele>528.0</ele><time>2026-04-28T11:00:53.91Z</time></trkpt><trkpt lat="39.49708986127852" lon="9.358536502276229"><ele>528.0</ele><time>2026-04-28T11:00:54.91Z</time></trkpt><trkpt lat="39.497282959541366" lon="9.358481288853724"><ele>528.0</ele><time>2026-04-28T11:00:55.91Z</time></trkpt><trkpt lat="39.49747996336644" lon="9.358428709979222"><ele>528.0</ele><time>2026-04-28T11:00:56.91Z</time></trkpt><trkpt lat="39.497676698479985" lon="9.35837935390659"><ele>528.0</ele><time>2026-04-28T11:00:57.91Z</time></trkpt><trkpt lat="39.49787594020723" lon="9.358327837300333"><ele>528.6666666666666</ele><time>2026-04-28T11:00:58.91Z</time></trkpt><trkpt lat="39.49807238171846" lon="9.358277026672605"><ele>529.3333333333333</ele><time>2026-04-28T11:00:59.91Z</time></trkpt><trkpt lat="39.49826719737955" lon="9.358223619670342"><ele>530.0</ele><time>2026-04-28T11:01:00.91Z</time></trkpt><trkpt lat="39.498461423255186" lon="9.358168668780952"><ele>530.0</ele><time>2026-04-28T11:01:01.91Z</time></trkpt><trkpt lat="39.49864792717182" lon="9.358119828396584"><ele>530.0</ele><time>2026-04-28T11:01:02.91Z</time></trkpt><trkpt lat="39.49882877894237" lon="9.358069622618094"><ele>530.0</ele><time>2026-04-28T11:01:03.91Z</time></trkpt><trkpt lat="39.49900651164235" lon="9.358024113787328"><ele>528.6666666666666</ele><time>2026-04-28T11:01:04.91Z</time></trkpt><trkpt lat="39.49918682623035" lon="9.357977247663214"><ele>527.3333333333334</ele><time>2026-04-28T11:01:05.91Z</time></trkpt><trkpt lat="39.49936511296603" lon="9.35793115107534"><ele>526.0</ele><time>2026-04-28T11:01:06.91Z</time></trkpt><trkpt lat="39.49954545495416" lon="9.357880748299202"><ele>524.6666666666667</ele><time>2026-04-28T11:01:07.91Z</time></trkpt><trkpt lat="39.49972717136804" lon="9.357831665410213"><ele>523.3333333333334</ele><time>2026-04-28T11:01:08.91Z</time></trkpt><trkpt lat="39.499913217100264" lon="9.357779697484714"><ele>522.0</ele><time>2026-04-28T11:01:09.911Z</time></trkpt><trkpt lat="39.50009893620026" lon="9.357725839991925"><ele>522.0</ele><time>2026-04-28T11:01:10.911Z</time></trkpt><trkpt lat="39.50027773711134" lon="9.357679350145657"><ele>522.0</ele><time>2026-04-28T11:01:11.911Z</time></trkpt><trkpt lat="39.50045357918265" lon="9.357637153838077"><ele>522.0</ele><time>2026-04-28T11:01:12.911Z</time></trkpt><trkpt lat="39.5006195245958" lon="9.357596490398368"><ele>520.6666666666666</ele><time>2026-04-28T11:01:13.911Z</time></trkpt><trkpt lat="39.50078485149775" lon="9.357555211407705"><ele>519.3333333333333</ele><time>2026-04-28T11:01:14.911Z</time></trkpt><trkpt lat="39.50095142402638" lon="9.35751210466485"><ele>518.0</ele><time>2026-04-28T11:01:15.911Z</time></trkpt><trkpt lat="39.50112251733786" lon="9.35746574995814"><ele>516.6666666666666</ele><time>2026-04-28T11:01:16.911Z</time></trkpt><trkpt lat="39.50129159377475" lon="9.357419610561015"><ele>515.3333333333334</ele><time>2026-04-28T11:01:17.911Z</time></trkpt><trkpt lat="39.501453026713556" lon="9.357370323097427"><ele>514.0</ele><time>2026-04-28T11:01:18.911Z</time></trkpt><trkpt lat="39.50160704180092" lon="9.357309856262068"><ele>514.0</ele><time>2026-04-28T11:01:19.911Z</time></trkpt><trkpt lat="39.50175397627508" lon="9.357236193746656"><ele>514.0</ele><time>2026-04-28T11:01:20.911Z</time></trkpt><trkpt lat="39.50189247351427" lon="9.357145930925707"><ele>514.0</ele><time>2026-04-28T11:01:21.911Z</time></trkpt><trkpt lat="39.502025432739664" lon="9.357035424150345"><ele>512.0</ele><time>2026-04-28T11:01:22.911Z</time></trkpt><trkpt lat="39.50215755211118" lon="9.356906194148564"><ele>510.0</ele><time>2026-04-28T11:01:23.911Z</time></trkpt><trkpt lat="39.50228685280024" lon="9.356764595143465"><ele>508.0</ele><time>2026-04-28T11:01:24.911Z</time></trkpt><trkpt lat="39.50241592861623" lon="9.356612581516769"><ele>508.0</ele><time>2026-04-28T11:01:25.911Z</time></trkpt><trkpt lat="39.50254768806246" lon="9.356456217239657"><ele>508.0</ele><time>2026-04-28T11:01:26.911Z</time></trkpt><trkpt lat="39.50267912435816" lon="9.356301735744212"><ele>508.0</ele><time>2026-04-28T11:01:27.911Z</time></trkpt><trkpt lat="39.50281306631694" lon="9.356147364384686"><ele>505.6666666666667</ele><time>2026-04-28T11:01:28.911Z</time></trkpt><trkpt lat="39.50295051133109" lon="9.355992896765638"><ele>503.33333333333337</ele><time>2026-04-28T11:01:29.911Z</time></trkpt><trkpt lat="39.5030864606787" lon="9.355837045943549"><ele>501.0</ele><time>2026-04-28T11:01:30.911Z</time></trkpt><trkpt lat="39.50322315579472" lon="9.355682860667596"><ele>502.33333333333337</ele><time>2026-04-28T11:01:31.911Z</time></trkpt><trkpt lat="39.503360366303596" lon="9.355529435410292"><ele>503.6666666666667</ele><time>2026-04-28T11:01:32.911Z</time></trkpt><trkpt lat="39.503501451668015" lon="9.355375464249938"><ele>505.0</ele><time>2026-04-28T11:01:33.911Z</time></trkpt><trkpt lat="39.503640743766766" lon="9.355217451605556"><ele>502.0</ele><time>2026-04-28T11:01:34.911Z</time></trkpt><trkpt lat="39.50377302494405" lon="9.355066428864415"><ele>499.0</ele><time>2026-04-28T11:01:35.911Z</time></trkpt><trkpt lat="39.50389802083793" lon="9.354926066304435"><ele>496.0</ele><time>2026-04-28T11:01:36.911Z</time></trkpt><trkpt lat="39.504018996026296" lon="9.354796167081632"><ele>497.25</ele><time>2026-04-28T11:01:37.911Z</time></trkpt><trkpt lat="39.50412846901192" lon="9.354680341877783"><ele>498.5</ele><time>2026-04-28T11:01:38.911Z</time></trkpt><trkpt lat="39.50423939628853" lon="9.354592002123823"><ele>499.75</ele><time>2026-04-28T11:01:39.911Z</time></trkpt><trkpt lat="39.50435636464227" lon="9.354532101727703"><ele>501.0</ele><time>2026-04-28T11:01:40.911Z</time></trkpt><trkpt lat="39.504484574362486" lon="9.354500505012112"><ele>499.5</ele><time>2026-04-28T11:01:41.911Z</time></trkpt><trkpt lat="39.50462333314886" lon="9.354498840551791"><ele>498.0</ele><time>2026-04-28T11:01:42.911Z</time></trkpt><trkpt lat="39.50475918166063" lon="9.354531114675343"><ele>496.5</ele><time>2026-04-28T11:01:43.911Z</time></trkpt><trkpt lat="39.50488061467711" lon="9.354595852560255"><ele>495.0</ele><time>2026-04-28T11:01:44.911Z</time></trkpt><trkpt lat="39.50498934787513" lon="9.35467783204337"><ele>493.0</ele><time>2026-04-28T11:01:45.911Z</time></trkpt><trkpt lat="39.505076930782124" lon="9.354785369965551"><ele>491.0</ele><time>2026-04-28T11:01:46.911Z</time></trkpt><trkpt lat="39.505153540012294" lon="9.354913831251594"><ele>489.0</ele><time>2026-04-28T11:01:47.911Z</time></trkpt><trkpt lat="39.505211147919994" lon="9.355060740614638"><ele>487.0</ele><time>2026-04-28T11:01:48.911Z</time></trkpt><trkpt lat="39.50524828789263" lon="9.35521788876348"><ele>487.0</ele><time>2026-04-28T11:01:49.911Z</time></trkpt><trkpt lat="39.50526695883635" lon="9.355385775500602"><ele>487.0</ele><time>2026-04-28T11:01:50.911Z</time></trkpt><trkpt lat="39.5052659998194" lon="9.355554709806029"><ele>487.0</ele><time>2026-04-28T11:01:51.911Z</time></trkpt><trkpt lat="39.505237427384955" lon="9.355713369477721"><ele>487.0</ele><time>2026-04-28T11:01:52.911Z</time></trkpt><trkpt lat="39.50517385314094" lon="9.355865245207239"><ele>485.0</ele><time>2026-04-28T11:01:53.911Z</time></trkpt><trkpt lat="39.5050961657489" lon="9.356023421878188"><ele>483.0</ele><time>2026-04-28T11:01:54.911Z</time></trkpt><trkpt lat="39.50500460249627" lon="9.356190861240687"><ele>481.0</ele><time>2026-04-28T11:01:55.911Z</time></trkpt><trkpt lat="39.50490742653528" lon="9.35636743300499"><ele>477.6666666666667</ele><time>2026-04-28T11:01:56.911Z</time></trkpt><trkpt lat="39.504809362184695" lon="9.356543541961276"><ele>474.33333333333337</ele><time>2026-04-28T11:01:57.911Z</time></trkpt><trkpt lat="39.5047129676739" lon="9.356714018481286"><ele>471.0</ele><time>2026-04-28T11:01:58.911Z</time></trkpt><trkpt lat="39.504620299621166" lon="9.356876404634322"><ele>473.75</ele><time>2026-04-28T11:01:59.911Z</time></trkpt><trkpt lat="39.50455035756417" lon="9.357030076712373"><ele>476.5</ele><time>2026-04-28T11:02:00.911Z</time></trkpt><trkpt lat="39.504498949303255" lon="9.357183113971267"><ele>479.25</ele><time>2026-04-28T11:02:01.912Z</time></trkpt><trkpt lat="39.50447247842575" lon="9.357338923698103"><ele>482.0</ele><time>2026-04-28T11:02:02.91Z</time></trkpt><trkpt lat="39.504468282202936" lon="9.357487486707285"><ele>482.0</ele><time>2026-04-28T11:02:03.91Z</time></trkpt><trkpt lat="39.50450116435532" lon="9.357620758997761"><ele>482.00000000000006</ele><time>2026-04-28T11:02:04.91Z</time></trkpt><trkpt lat="39.5045417662128" lon="9.357734758494745"><ele>482.00000000000006</ele><time>2026-04-28T11:02:05.91Z</time></trkpt><trkpt lat="39.504597488224036" lon="9.357838511010096"><ele>482.0</ele><time>2026-04-28T11:02:06.91Z</time></trkpt><trkpt lat="39.50467465672514" lon="9.357913299917517"><ele>482.0</ele><time>2026-04-28T11:02:07.91Z</time></trkpt><trkpt lat="39.50477662993994" lon="9.357973848443185"><ele>479.75</ele><time>2026-04-28T11:02:08.909Z</time></trkpt><trkpt lat="39.50488661096673" lon="9.358020518422686"><ele>477.5</ele><time>2026-04-28T11:02:09.91Z</time></trkpt><trkpt lat="39.50500903527636" lon="9.358050012568599"><ele>475.25</ele><time>2026-04-28T11:02:10.91Z</time></trkpt><trkpt lat="39.50514158341843" lon="9.358066366513652"><ele>473.0</ele><time>2026-04-28T11:02:11.91Z</time></trkpt><trkpt lat="39.50527805445119" lon="9.358050527847947"><ele>473.0</ele><time>2026-04-28T11:02:12.91Z</time></trkpt><trkpt lat="39.505399713004365" lon="9.35804001702307"><ele>473.0</ele><time>2026-04-28T11:02:13.91Z</time></trkpt><trkpt lat="39.50552588575492" lon="9.358029497696752"><ele>473.0</ele><time>2026-04-28T11:02:14.91Z</time></trkpt><trkpt lat="39.50565108506901" lon="9.358027235947468"><ele>473.0</ele><time>2026-04-28T11:02:15.91Z</time></trkpt><trkpt lat="39.50577918558903" lon="9.358040340477805"><ele>469.75</ele><time>2026-04-28T11:02:16.91Z</time></trkpt><trkpt lat="39.50591042560816" lon="9.358089853753278"><ele>466.5</ele><time>2026-04-28T11:02:17.91Z</time></trkpt><trkpt lat="39.50603897154998" lon="9.358128642239299"><ele>463.25</ele><time>2026-04-28T11:02:18.91Z</time></trkpt><trkpt lat="39.50616100691118" lon="9.358178596660313"><ele>460.0</ele><time>2026-04-28T11:02:19.91Z</time></trkpt><trkpt lat="39.506278164524424" lon="9.358241546766935"><ele>453.75</ele><time>2026-04-28T11:02:20.91Z</time></trkpt><trkpt lat="39.50638618624928" lon="9.358326284548765"><ele>447.5</ele><time>2026-04-28T11:02:21.91Z</time></trkpt><trkpt lat="39.506484064814984" lon="9.358415894011637"><ele>441.25</ele><time>2026-04-28T11:02:22.91Z</time></trkpt><trkpt lat="39.50657017260909" lon="9.358525928553723"><ele>435.0</ele><time>2026-04-28T11:02:23.91Z</time></trkpt><trkpt lat="39.50663749582936" lon="9.358658528321964"><ele>435.0</ele><time>2026-04-28T11:02:24.91Z</time></trkpt><trkpt lat="39.50669358590842" lon="9.358803301128159"><ele>435.0</ele><time>2026-04-28T11:02:25.91Z</time></trkpt><trkpt lat="39.506727322314944" lon="9.358964575363768"><ele>435.0</ele><time>2026-04-28T11:02:26.91Z</time></trkpt><trkpt lat="39.50674740637762" lon="9.359139820122135"><ele>435.0</ele><time>2026-04-28T11:02:27.91Z</time></trkpt><trkpt lat="39.506756276327785" lon="9.359329427947012"><ele>436.66666666666663</ele><time>2026-04-28T11:02:28.91Z</time></trkpt><trkpt lat="39.50676313694775" lon="9.359529532756149"><ele>438.3333333333333</ele><time>2026-04-28T11:02:29.91Z</time></trkpt><trkpt lat="39.5067719664749" lon="9.359727621227142"><ele>440.0</ele><time>2026-04-28T11:02:30.91Z</time></trkpt><trkpt lat="39.50677604077054" lon="9.359913997185394"><ele>440.0</ele><time>2026-04-28T11:02:31.91Z</time></trkpt><trkpt lat="39.50677161007882" lon="9.360083832241202"><ele>440.0</ele><time>2026-04-28T11:02:32.91Z</time></trkpt><trkpt lat="39.50674966106884" lon="9.360242973743766"><ele>440.0</ele><time>2026-04-28T11:02:33.91Z</time></trkpt><trkpt lat="39.506697871412655" lon="9.360397925869307"><ele>440.0</ele><time>2026-04-28T11:02:34.91Z</time></trkpt><trkpt lat="39.50663552020768" lon="9.360548880875841"><ele>435.75</ele><time>2026-04-28T11:02:35.91Z</time></trkpt><trkpt lat="39.50655627840691" lon="9.360696268456572"><ele>431.5</ele><time>2026-04-28T11:02:36.91Z</time></trkpt><trkpt lat="39.50647592958997" lon="9.360840006991562"><ele>427.25</ele><time>2026-04-28T11:02:37.91Z</time></trkpt><trkpt lat="39.506406590238676" lon="9.360984560450213"><ele>423.0</ele><time>2026-04-28T11:02:38.91Z</time></trkpt><trkpt lat="39.506365266514194" lon="9.361136827587382"><ele>423.0</ele><time>2026-04-28T11:02:39.91Z</time></trkpt><trkpt lat="39.50634146680948" lon="9.36129410769041"><ele>423.0</ele><time>2026-04-28T11:02:40.91Z</time></trkpt><trkpt lat="39.50633896294334" lon="9.361449588996813"><ele>423.0</ele><time>2026-04-28T11:02:41.91Z</time></trkpt><trkpt lat="39.50634925439377" lon="9.361604928094115"><ele>423.0</ele><time>2026-04-28T11:02:42.91Z</time></trkpt><trkpt lat="39.50632555936319" lon="9.361766620999605"><ele>419.5</ele><time>2026-04-28T11:02:43.91Z</time></trkpt><trkpt lat="39.50628563113623" lon="9.36192029910334"><ele>416.0</ele><time>2026-04-28T11:02:44.91Z</time></trkpt><trkpt lat="39.506215833945696" lon="9.362061869412862"><ele>412.5</ele><time>2026-04-28T11:02:45.91Z</time></trkpt><trkpt lat="39.50611847979931" lon="9.36219532948467"><ele>409.0</ele><time>2026-04-28T11:02:46.91Z</time></trkpt><trkpt lat="39.50600481986683" lon="9.36230969455861"><ele>409.0</ele><time>2026-04-28T11:02:47.91Z</time></trkpt><trkpt lat="39.50588128176086" lon="9.362363833846699"><ele>409.0</ele><time>2026-04-28T11:02:48.91Z</time></trkpt><trkpt lat="39.50578351276341" lon="9.362371442309854"><ele>409.0</ele><time>2026-04-28T11:02:49.91Z</time></trkpt><trkpt lat="39.50565774004506" lon="9.362361223162777"><ele>409.0</ele><time>2026-04-28T11:02:50.91Z</time></trkpt><trkpt lat="39.50551590422148" lon="9.36234648386317"><ele>412.0</ele><time>2026-04-28T11:02:51.91Z</time></trkpt><trkpt lat="39.50535875594716" lon="9.362337146831175"><ele>415.0</ele><time>2026-04-28T11:02:52.91Z</time></trkpt><trkpt lat="39.50520627080079" lon="9.362380005135456"><ele>418.0</ele><time>2026-04-28T11:02:53.91Z</time></trkpt><trkpt lat="39.50506711152195" lon="9.36250102864701"><ele>418.0</ele><time>2026-04-28T11:02:54.91Z</time></trkpt><trkpt lat="39.5049891413321" lon="9.362634032364713"><ele>418.0</ele><time>2026-04-28T11:02:55.91Z</time></trkpt><trkpt lat="39.504959479519655" lon="9.362795552791832"><ele>418.0</ele><time>2026-04-28T11:02:56.91Z</time></trkpt><trkpt lat="39.504964115929454" lon="9.362952159235816"><ele>418.0</ele><time>2026-04-28T11:02:57.91Z</time></trkpt><trkpt lat="39.50499821199635" lon="9.363056532586052"><ele>415.75</ele><time>2026-04-28T11:02:58.91Z</time></trkpt><trkpt lat="39.50501711180374" lon="9.36317052707239"><ele>413.5</ele><time>2026-04-28T11:02:59.91Z</time></trkpt><trkpt lat="39.50503592019373" lon="9.363313828437104"><ele>411.25</ele><time>2026-04-28T11:03:00.91Z</time></trkpt><trkpt lat="39.505055546893814" lon="9.363464863157676"><ele>409.0</ele><time>2026-04-28T11:03:01.91Z</time></trkpt><trkpt lat="39.505075784822765" lon="9.36365009539474"><ele>409.0</ele><time>2026-04-28T11:03:02.91Z</time></trkpt><trkpt lat="39.50507350510632" lon="9.363739053709791"><ele>409.0</ele><time>2026-04-28T11:03:03.911Z</time></trkpt><trkpt lat="39.50505637104929" lon="9.363882262972377"><ele>409.0</ele><time>2026-04-28T11:03:04.911Z</time></trkpt><trkpt lat="39.50500931843309" lon="9.36405608422828"><ele>409.0</ele><time>2026-04-28T11:03:05.911Z</time></trkpt><trkpt lat="39.504953419629814" lon="9.36422045845611"><ele>406.6666666666667</ele><time>2026-04-28T11:03:06.911Z</time></trkpt><trkpt lat="39.50488979763067" lon="9.364400706436282"><ele>404.33333333333337</ele><time>2026-04-28T11:03:07.911Z</time></trkpt><trkpt lat="39.50480902613199" lon="9.364582982946773"><ele>402.0</ele><time>2026-04-28T11:03:08.911Z</time></trkpt><trkpt lat="39.504766649591225" lon="9.364787464394135"><ele>397.33333333333337</ele><time>2026-04-28T11:03:09.911Z</time></trkpt><trkpt lat="39.504738084512226" lon="9.364996523710122"><ele>392.6666666666667</ele><time>2026-04-28T11:03:10.911Z</time></trkpt><trkpt lat="39.504709914006675" lon="9.365211730638777"><ele>388.0</ele><time>2026-04-28T11:03:11.911Z</time></trkpt><trkpt lat="39.50468502269026" lon="9.36544046270715"><ele>385.0</ele><time>2026-04-28T11:03:12.911Z</time></trkpt><trkpt lat="39.504657760187435" lon="9.365676672976024"><ele>382.0</ele><time>2026-04-28T11:03:13.911Z</time></trkpt><trkpt lat="39.504612659276475" lon="9.365902153519105"><ele>379.0</ele><time>2026-04-28T11:03:14.911Z</time></trkpt><trkpt lat="39.504580331668905" lon="9.36613010002992"><ele>384.3333333333333</ele><time>2026-04-28T11:03:15.911Z</time></trkpt><trkpt lat="39.5045497815233" lon="9.366345513462196"><ele>389.66666666666663</ele><time>2026-04-28T11:03:16.911Z</time></trkpt><trkpt lat="39.50452293104315" lon="9.366549201325048"><ele>395.0</ele><time>2026-04-28T11:03:17.911Z</time></trkpt><trkpt lat="39.504511108239065" lon="9.366726488849997"><ele>395.0</ele><time>2026-04-28T11:03:18.911Z</time></trkpt><trkpt lat="39.50452886430189" lon="9.36687792182428"><ele>395.0</ele><time>2026-04-28T11:03:19.911Z</time></trkpt><trkpt lat="39.50456501842011" lon="9.367008109521137"><ele>395.0</ele><time>2026-04-28T11:03:20.911Z</time></trkpt><trkpt lat="39.50464311651761" lon="9.367107699065702"><ele>395.0</ele><time>2026-04-28T11:03:21.911Z</time></trkpt><trkpt lat="39.50472582982334" lon="9.367187281470107"><ele>395.0</ele><time>2026-04-28T11:03:22.911Z</time></trkpt><trkpt lat="39.504819854182735" lon="9.36723592704696"><ele>392.4</ele><time>2026-04-28T11:03:23.911Z</time></trkpt><trkpt lat="39.504919521367526" lon="9.367240273736014"><ele>389.8</ele><time>2026-04-28T11:03:24.911Z</time></trkpt><trkpt lat="39.505012735891775" lon="9.36724175300351"><ele>387.20000000000005</ele><time>2026-04-28T11:03:25.911Z</time></trkpt><trkpt lat="39.505105960248414" lon="9.367178750908034"><ele>384.6</ele><time>2026-04-28T11:03:26.911Z</time></trkpt><trkpt lat="39.505186282264056" lon="9.367102639893526"><ele>382.0</ele><time>2026-04-28T11:03:27.911Z</time></trkpt><trkpt lat="39.505247496573936" lon="9.366998282322806"><ele>381.25</ele><time>2026-04-28T11:03:28.911Z</time></trkpt><trkpt lat="39.50529007073522" lon="9.366864483523825"><ele>380.5</ele><time>2026-04-28T11:03:29.911Z</time></trkpt><trkpt lat="39.5053213241346" lon="9.366713579223555"><ele>379.75</ele><time>2026-04-28T11:03:30.911Z</time></trkpt><trkpt lat="39.5053412706015" lon="9.366536424560506"><ele>379.0</ele><time>2026-04-28T11:03:31.911Z</time></trkpt><trkpt lat="39.505356912560366" lon="9.366337586582423"><ele>379.0</ele><time>2026-04-28T11:03:32.911Z</time></trkpt><trkpt lat="39.50537348000239" lon="9.366135354195816"><ele>379.0</ele><time>2026-04-28T11:03:33.911Z</time></trkpt><trkpt lat="39.50539438215669" lon="9.365929942870174"><ele>379.0</ele><time>2026-04-28T11:03:34.911Z</time></trkpt><trkpt lat="39.50541903752953" lon="9.365716540424899"><ele>374.0</ele><time>2026-04-28T11:03:35.911Z</time></trkpt><trkpt lat="39.5054430564642" lon="9.3654915454392"><ele>369.0</ele><time>2026-04-28T11:03:36.911Z</time></trkpt><trkpt lat="39.50546447593042" lon="9.365265894451529"><ele>364.0</ele><time>2026-04-28T11:03:37.911Z</time></trkpt><trkpt lat="39.50548878068135" lon="9.365034497200718"><ele>364.0</ele><time>2026-04-28T11:03:38.911Z</time></trkpt><trkpt lat="39.50551256022595" lon="9.36481718613512"><ele>364.0</ele><time>2026-04-28T11:03:39.911Z</time></trkpt><trkpt lat="39.50553627348821" lon="9.364597256417245"><ele>364.0</ele><time>2026-04-28T11:03:40.911Z</time></trkpt><trkpt lat="39.50556400815635" lon="9.364386501478197"><ele>364.0</ele><time>2026-04-28T11:03:41.911Z</time></trkpt><trkpt lat="39.50560924837868" lon="9.364197684242303"><ele>364.0</ele><time>2026-04-28T11:03:42.911Z</time></trkpt><trkpt lat="39.5056707323122" lon="9.364019370583447"><ele>364.0</ele><time>2026-04-28T11:03:43.911Z</time></trkpt><trkpt lat="39.50575369727331" lon="9.363860972385885"><ele>367.25</ele><time>2026-04-28T11:03:44.911Z</time></trkpt><trkpt lat="39.50585154488048" lon="9.363732466108882"><ele>370.5</ele><time>2026-04-28T11:03:45.911Z</time></trkpt><trkpt lat="39.505971230665594" lon="9.363612601626233"><ele>373.75</ele><time>2026-04-28T11:03:46.911Z</time></trkpt><trkpt lat="39.50609832091713" lon="9.36352528729647"><ele>377.0</ele><time>2026-04-28T11:03:47.911Z</time></trkpt><trkpt lat="39.50624406800972" lon="9.363460731485443"><ele>373.6666666666667</ele><time>2026-04-28T11:03:48.911Z</time></trkpt><trkpt lat="39.5063960507657" lon="9.363408781314636"><ele>370.3333333333333</ele><time>2026-04-28T11:03:49.911Z</time></trkpt><trkpt lat="39.50655326264135" lon="9.363364140913676"><ele>367.0</ele><time>2026-04-28T11:03:50.911Z</time></trkpt><trkpt lat="39.50671701800729" lon="9.363317273754815"><ele>367.0</ele><time>2026-04-28T11:03:51.911Z</time></trkpt><trkpt lat="39.50688781898183" lon="9.36326281455979"><ele>367.0</ele><time>2026-04-28T11:03:52.911Z</time></trkpt><trkpt lat="39.50706633164465" lon="9.363206590627442"><ele>367.0</ele><time>2026-04-28T11:03:53.911Z</time></trkpt><trkpt lat="39.50724432301691" lon="9.3631474554988"><ele>367.3333333333333</ele><time>2026-04-28T11:03:54.912Z</time></trkpt><trkpt lat="39.507426867654694" lon="9.363084575077526"><ele>367.6666666666667</ele><time>2026-04-28T11:03:55.912Z</time></trkpt><trkpt lat="39.507611022728035" lon="9.363021018157964"><ele>368.0</ele><time>2026-04-28T11:03:56.912Z</time></trkpt><trkpt lat="39.50779589435205" lon="9.362963404848662"><ele>364.6666666666667</ele><time>2026-04-28T11:03:57.912Z</time></trkpt><trkpt lat="39.50796897966964" lon="9.362904559138254"><ele>361.3333333333333</ele><time>2026-04-28T11:03:58.912Z</time></trkpt><trkpt lat="39.508133338286484" lon="9.362857345807228"><ele>358.0</ele><time>2026-04-28T11:03:59.912Z</time></trkpt><trkpt lat="39.508294231909375" lon="9.362818698883164"><ele>358.0</ele><time>2026-04-28T11:04:00.912Z</time></trkpt><trkpt lat="39.50844792638388" lon="9.362794054473577"><ele>358.0</ele><time>2026-04-28T11:04:01.912Z</time></trkpt><trkpt lat="39.508583733534365" lon="9.362788131574426"><ele>358.0</ele><time>2026-04-28T11:04:02.912Z</time></trkpt><trkpt lat="39.50869853524631" lon="9.362809754074759"><ele>358.0</ele><time>2026-04-28T11:04:03.912Z</time></trkpt><trkpt lat="39.50880577083003" lon="9.362867170381357"><ele>357.25</ele><time>2026-04-28T11:04:04.912Z</time></trkpt><trkpt lat="39.50890170914221" lon="9.362956150548692"><ele>356.5</ele><time>2026-04-28T11:04:05.912Z</time></trkpt><trkpt lat="39.50899326045032" lon="9.363076289516872"><ele>355.75</ele><time>2026-04-28T11:04:06.912Z</time></trkpt><trkpt lat="39.50908777255067" lon="9.363215200629881"><ele>355.0</ele><time>2026-04-28T11:04:07.912Z</time></trkpt><trkpt lat="39.50917719589078" lon="9.363343569319788"><ele>354.2</ele><time>2026-04-28T11:04:08.91Z</time></trkpt><trkpt lat="39.509255543993206" lon="9.363455193879183"><ele>353.4</ele><time>2026-04-28T11:04:09.911Z</time></trkpt><trkpt lat="39.50931312471079" lon="9.363543616587046"><ele>352.6</ele><time>2026-04-28T11:04:10.911Z</time></trkpt><trkpt lat="39.50937183025514" lon="9.363649392554388"><ele>351.8</ele><time>2026-04-28T11:04:12.91Z</time></trkpt><trkpt lat="39.50932939635208" lon="9.363571557579714"><ele>351.0</ele><time>2026-04-28T11:04:44.91Z</time></trkpt><trkpt lat="39.50926098183022" lon="9.363472386289263"><ele>351.0</ele><time>2026-04-28T11:04:46.91Z</time></trkpt><trkpt lat="39.509177996810855" lon="9.363359933340877"><ele>351.0</ele><time>2026-04-28T11:04:48.91Z</time></trkpt><trkpt lat="39.50910188727056" lon="9.363253440051308"><ele>351.0</ele><time>2026-04-28T11:04:50.91Z</time></trkpt><trkpt lat="39.50905283921975" lon="9.363185112938444"><ele>351.0</ele><time>2026-04-28T11:04:52.91Z</time></trkpt><trkpt lat="39.50899265404157" lon="9.362664271054026"><ele>351.5</ele><time>2026-04-28T11:05:05.911Z</time></trkpt><trkpt lat="39.508963242160746" lon="9.362564049857964"><ele>352.0</ele><time>2026-04-28T11:05:06.911Z</time></trkpt><trkpt lat="39.50891921939773" lon="9.362467832283357"><ele>352.5</ele><time>2026-04-28T11:05:07.911Z</time></trkpt><trkpt lat="39.508869536832535" lon="9.362369130471336"><ele>353.0</ele><time>2026-04-28T11:05:08.911Z</time></trkpt><trkpt lat="39.50881606695953" lon="9.362272326945345"><ele>353.5</ele><time>2026-04-28T11:05:09.911Z</time></trkpt><trkpt lat="39.50876165620194" lon="9.362173353739621"><ele>354.0</ele><time>2026-04-28T11:05:10.911Z</time></trkpt><trkpt lat="39.508707729113276" lon="9.3620752602489"><ele>356.3333333333333</ele><time>2026-04-28T11:05:11.911Z</time></trkpt><trkpt lat="39.50865643051458" lon="9.361975438439341"><ele>358.6666666666667</ele><time>2026-04-28T11:05:12.911Z</time></trkpt><trkpt lat="39.50861695810222" lon="9.361878141005489"><ele>361.0</ele><time>2026-04-28T11:05:13.911Z</time></trkpt><trkpt lat="39.508581948933966" lon="9.361772364416087"><ele>363.33333333333337</ele><time>2026-04-28T11:05:14.911Z</time></trkpt><trkpt lat="39.50855442027269" lon="9.36167173208711"><ele>365.6666666666667</ele><time>2026-04-28T11:05:15.911Z</time></trkpt><trkpt lat="39.50853209540389" lon="9.361562603294097"><ele>368.0</ele><time>2026-04-28T11:05:16.911Z</time></trkpt><trkpt lat="39.50853364776991" lon="9.36143494120677"><ele>368.2</ele><time>2026-04-28T11:05:17.911Z</time></trkpt><trkpt lat="39.50854421191921" lon="9.36130414955148"><ele>368.4</ele><time>2026-04-28T11:05:18.911Z</time></trkpt><trkpt lat="39.508557027655904" lon="9.361181443784716"><ele>368.59999999999997</ele><time>2026-04-28T11:05:19.911Z</time></trkpt><trkpt lat="39.508560546248134" lon="9.361063735244453"><ele>368.79999999999995</ele><time>2026-04-28T11:05:20.911Z</time></trkpt><trkpt lat="39.508564684136495" lon="9.36094796538074"><ele>369.0</ele><time>2026-04-28T11:05:21.911Z</time></trkpt><trkpt lat="39.508561614836545" lon="9.360845608204245"><ele>369.0</ele><time>2026-04-28T11:05:22.911Z</time></trkpt><trkpt lat="39.50854524800765" lon="9.360733229110094"><ele>369.0</ele><time>2026-04-28T11:05:23.911Z</time></trkpt><trkpt lat="39.508525121454014" lon="9.360616186330656"><ele>369.0</ele><time>2026-04-28T11:05:24.911Z</time></trkpt><trkpt lat="39.50850832054494" lon="9.360496337670163"><ele>369.0</ele><time>2026-04-28T11:05:25.911Z</time></trkpt><trkpt lat="39.50849155522144" lon="9.360379498201134"><ele>369.0</ele><time>2026-04-28T11:05:26.911Z</time></trkpt><trkpt lat="39.50848034633365" lon="9.360270860314866"><ele>368.1666666666667</ele><time>2026-04-28T11:05:27.911Z</time></trkpt><trkpt lat="39.50846522932434" lon="9.360158310198452"><ele>367.3333333333333</ele><time>2026-04-28T11:05:28.911Z</time></trkpt><trkpt lat="39.50843820413598" lon="9.360042501760484"><ele>366.5</ele><time>2026-04-28T11:05:29.911Z</time></trkpt><trkpt lat="39.50841699252534" lon="9.359941307236054"><ele>365.66666666666663</ele><time>2026-04-28T11:05:30.911Z</time></trkpt><trkpt lat="39.50838355343617" lon="9.359840071749705"><ele>364.8333333333333</ele><time>2026-04-28T11:05:31.911Z</time></trkpt><trkpt lat="39.50834614737499" lon="9.359742614262546"><ele>364.0</ele><time>2026-04-28T11:05:32.911Z</time></trkpt><trkpt lat="39.50830487422218" lon="9.359656160643645"><ele>361.66666666666663</ele><time>2026-04-28T11:05:33.911Z</time></trkpt><trkpt lat="39.508262603673266" lon="9.359584166967277"><ele>359.3333333333333</ele><time>2026-04-28T11:05:34.911Z</time></trkpt><trkpt lat="39.50821295600162" lon="9.359514473660822"><ele>357.0</ele><time>2026-04-28T11:05:35.911Z</time></trkpt><trkpt lat="39.50816103842153" lon="9.359398079373355"><ele>354.6666666666667</ele><time>2026-04-28T11:05:37.911Z</time></trkpt><trkpt lat="39.50815534928133" lon="9.359235863291426"><ele>352.33333333333337</ele><time>2026-04-28T11:05:39.911Z</time></trkpt><trkpt lat="39.50815137960559" lon="9.359148103669412"><ele>350.0</ele><time>2026-04-28T11:05:40.911Z</time></trkpt><trkpt lat="39.5081437379278" lon="9.359037201066284"><ele>350.0</ele><time>2026-04-28T11:05:41.911Z</time></trkpt><trkpt lat="39.508129898614065" lon="9.35892974949756"><ele>350.0</ele><time>2026-04-28T11:05:42.911Z</time></trkpt><trkpt lat="39.50811580996439" lon="9.358843446470333"><ele>350.0</ele><time>2026-04-28T11:05:43.912Z</time></trkpt><trkpt lat="39.50810398607474" lon="9.358727262001054"><ele>350.0</ele><time>2026-04-28T11:05:44.913Z</time></trkpt><trkpt lat="39.508095654979584" lon="9.358606009218086"><ele>350.0</ele><time>2026-04-28T11:05:45.914Z</time></trkpt><trkpt lat="39.508086245592715" lon="9.358482361187946"><ele>350.0</ele><time>2026-04-28T11:05:46.915Z</time></trkpt><trkpt lat="39.508078168712196" lon="9.358361260234062"><ele>349.2</ele><time>2026-04-28T11:05:47.916Z</time></trkpt><trkpt lat="39.508065921900744" lon="9.358238742814112"><ele>348.4</ele><time>2026-04-28T11:05:48.916Z</time></trkpt><trkpt lat="39.50804255339195" lon="9.358121054997872"><ele>347.6</ele><time>2026-04-28T11:05:49.917Z</time></trkpt><trkpt lat="39.50801249768279" lon="9.358002910298804"><ele>346.8</ele><time>2026-04-28T11:05:50.918Z</time></trkpt><trkpt lat="39.50797710053111" lon="9.35788388317221"><ele>346.0</ele><time>2026-04-28T11:05:51.918Z</time></trkpt><trkpt lat="39.50794485983428" lon="9.357765238817107"><ele>345.5</ele><time>2026-04-28T11:05:52.919Z</time></trkpt><trkpt lat="39.507916841235" lon="9.357662834783444"><ele>345.0</ele><time>2026-04-28T11:05:53.919Z</time></trkpt><trkpt lat="39.507894778532275" lon="9.357572680093488"><ele>344.5</ele><time>2026-04-28T11:05:54.92Z</time></trkpt><trkpt lat="39.507929802950784" lon="9.357449384947916"><ele>344.0</ele><time>2026-04-28T11:05:56.921Z</time></trkpt><trkpt lat="39.50798277080415" lon="9.357396146296558"><ele>343.5</ele><time>2026-04-28T11:05:57.921Z</time></trkpt><trkpt lat="39.50806537460633" lon="9.357383126654769"><ele>343.0</ele><time>2026-04-28T11:05:58.921Z</time></trkpt><trkpt lat="39.508128222452804" lon="9.357319771725148"><ele>343.0</ele><time>2026-04-28T11:05:59.922Z</time></trkpt><trkpt lat="39.50816494177428" lon="9.35721645287121"><ele>343.0</ele><time>2026-04-28T11:06:00.922Z</time></trkpt><trkpt lat="39.50822112031742" lon="9.35712012371757"><ele>343.0</ele><time>2026-04-28T11:06:01.922Z</time></trkpt><trkpt lat="39.508269502661335" lon="9.357026065732466"><ele>343.0</ele><time>2026-04-28T11:06:02.923Z</time></trkpt><trkpt lat="39.50832999816439" lon="9.356956789631722"><ele>343.0</ele><time>2026-04-28T11:06:03.923Z</time></trkpt><trkpt lat="39.50839438611634" lon="9.356895016797603"><ele>343.0</ele><time>2026-04-28T11:06:04.923Z</time></trkpt><trkpt lat="39.50846612864772" lon="9.356839229139299"><ele>340.5</ele><time>2026-04-28T11:06:05.924Z</time></trkpt><trkpt lat="39.50854493043139" lon="9.356783094844298"><ele>338.0</ele><time>2026-04-28T11:06:06.924Z</time></trkpt><trkpt lat="39.50861413697028" lon="9.356743445868855"><ele>335.5</ele><time>2026-04-28T11:06:07.924Z</time></trkpt><trkpt lat="39.50870194903289" lon="9.356688389225877"><ele>333.0</ele><time>2026-04-28T11:06:08.924Z</time></trkpt><trkpt lat="39.50878998986414" lon="9.356686846387108"><ele>330.5</ele><time>2026-04-28T11:06:09.924Z</time></trkpt><trkpt lat="39.508883197082" lon="9.356672070039021"><ele>328.0</ele><time>2026-04-28T11:06:10.925Z</time></trkpt><trkpt lat="39.50896479918062" lon="9.356660389277526"><ele>327.99999999999994</ele><time>2026-04-28T11:06:11.925Z</time></trkpt><trkpt lat="39.5090296367996" lon="9.356630460891187"><ele>328.0</ele><time>2026-04-28T11:06:12.925Z</time></trkpt><trkpt lat="39.50909704467531" lon="9.356643120688796"><ele>328.0</ele><time>2026-04-28T11:06:13.925Z</time></trkpt><trkpt lat="39.50916612444363" lon="9.356630287638788"><ele>328.0</ele><time>2026-04-28T11:06:14.925Z</time></trkpt><trkpt lat="39.5092346727903" lon="9.35661672305637"><ele>328.0</ele><time>2026-04-28T11:06:15.924Z</time></trkpt><trkpt lat="39.50930612668548" lon="9.356597164037392"><ele>327.99999999999994</ele><time>2026-04-28T11:06:16.924Z</time></trkpt><trkpt lat="39.50936821179224" lon="9.356549823764736"><ele>328.0</ele><time>2026-04-28T11:06:17.924Z</time></trkpt><trkpt lat="39.50943852268676" lon="9.356522516454259"><ele>328.0</ele><time>2026-04-28T11:06:18.925Z</time></trkpt><trkpt lat="39.509497225870746" lon="9.356487997189147"><ele>328.0</ele><time>2026-04-28T11:06:19.925Z</time></trkpt><trkpt lat="39.50954512359931" lon="9.356432770342995"><ele>328.0</ele><time>2026-04-28T11:06:20.925Z</time></trkpt><trkpt lat="39.50959778958958" lon="9.356378503435504"><ele>328.0</ele><time>2026-04-28T11:06:21.925Z</time></trkpt><trkpt lat="39.5096494560085" lon="9.356329512424916"><ele>328.0</ele><time>2026-04-28T11:06:22.925Z</time></trkpt><trkpt lat="39.509737821367075" lon="9.356232744890832"><ele>328.0</ele><time>2026-04-28T11:06:24.925Z</time></trkpt><trkpt lat="39.50983299001712" lon="9.356130740895601"><ele>326.16666666666663</ele><time>2026-04-28T11:06:26.925Z</time></trkpt><trkpt lat="39.509870854154194" lon="9.356059567132334"><ele>324.3333333333333</ele><time>2026-04-28T11:06:27.925Z</time></trkpt><trkpt lat="39.50992061702845" lon="9.35599951632364"><ele>322.5</ele><time>2026-04-28T11:06:28.925Z</time></trkpt><trkpt lat="39.50997933118403" lon="9.355941048259256"><ele>320.6666666666667</ele><time>2026-04-28T11:06:29.925Z</time></trkpt><trkpt lat="39.51003916083075" lon="9.355887823490903"><ele>318.83333333333337</ele><time>2026-04-28T11:06:30.925Z</time></trkpt><trkpt lat="39.51009271312427" lon="9.355836867069963"><ele>317.0</ele><time>2026-04-28T11:06:31.925Z</time></trkpt><trkpt lat="39.51018925545003" lon="9.355747149168577"><ele>317.0</ele><time>2026-04-28T11:06:33.926Z</time></trkpt><trkpt lat="39.510276953837476" lon="9.355662984362588"><ele>317.0</ele><time>2026-04-28T11:06:35.926Z</time></trkpt><trkpt lat="39.51038106265223" lon="9.355600196531933"><ele>317.0</ele><time>2026-04-28T11:06:37.926Z</time></trkpt><trkpt lat="39.51044664752273" lon="9.355513271252246"><ele>317.0</ele><time>2026-04-28T11:06:39.926Z</time></trkpt><trkpt lat="39.510496504673874" lon="9.355397033816624"><ele>317.0</ele><time>2026-04-28T11:06:41.926Z</time></trkpt><trkpt lat="39.51054913949346" lon="9.355255013442859"><ele>312.0</ele><time>2026-04-28T11:06:43.926Z</time></trkpt><trkpt lat="39.5105870233441" lon="9.355120055009367"><ele>307.0</ele><time>2026-04-28T11:06:45.926Z</time></trkpt><trkpt lat="39.510611988668174" lon="9.35497327585823"><ele>302.0</ele><time>2026-04-28T11:06:47.926Z</time></trkpt><trkpt lat="39.510621103106814" lon="9.35489117693749"><ele>297.0</ele><time>2026-04-28T11:06:48.926Z</time></trkpt><trkpt lat="39.51061599563548" lon="9.354725480565996"><ele>292.0</ele><time>2026-04-28T11:06:50.926Z</time></trkpt><trkpt lat="39.51060366552497" lon="9.35463475706744"><ele>290.3333333333333</ele><time>2026-04-28T11:06:51.926Z</time></trkpt><trkpt lat="39.510608177729736" lon="9.35454818462655"><ele>288.66666666666663</ele><time>2026-04-28T11:06:52.926Z</time></trkpt><trkpt lat="39.510591687260224" lon="9.354462882795637"><ele>287.0</ele><time>2026-04-28T11:06:53.926Z</time></trkpt><trkpt lat="39.510578855753614" lon="9.354381251065512"><ele>285.3333333333333</ele><time>2026-04-28T11:06:54.926Z</time></trkpt><trkpt lat="39.51055359791696" lon="9.354299105183163"><ele>283.6666666666667</ele><time>2026-04-28T11:06:55.927Z</time></trkpt><trkpt lat="39.51052212550412" lon="9.354184528630924"><ele>282.0</ele><time>2026-04-28T11:06:57.927Z</time></trkpt><trkpt lat="39.5104830993893" lon="9.354067473117931"><ele>282.0</ele><time>2026-04-28T11:06:59.927Z</time></trkpt><trkpt lat="39.510533738096065" lon="9.353966275301483"><ele>282.0</ele><time>2026-04-28T11:07:01.927Z</time></trkpt><trkpt lat="39.510624643094694" lon="9.353976781559137"><ele>282.0</ele><time>2026-04-28T11:07:03.927Z</time></trkpt><trkpt lat="39.51064848614677" lon="9.35406240079417"><ele>282.0</ele><time>2026-04-28T11:07:04.927Z</time></trkpt><trkpt lat="39.51070063583613" lon="9.35420531691276"><ele>282.0</ele><time>2026-04-28T11:07:06.927Z</time></trkpt><trkpt lat="39.510744218017265" lon="9.354279385629614"><ele>282.0</ele><time>2026-04-28T11:07:07.927Z</time></trkpt><trkpt lat="39.51079721884059" lon="9.354340100576902"><ele>282.0</ele><time>2026-04-28T11:07:08.927Z</time></trkpt><trkpt lat="39.510845149514616" lon="9.35440255178457"><ele>282.0</ele><time>2026-04-28T11:07:09.927Z</time></trkpt><trkpt lat="39.51088256032936" lon="9.354477735322448"><ele>282.0</ele><time>2026-04-28T11:07:10.927Z</time></trkpt><trkpt lat="39.510946779705" lon="9.354544336178515"><ele>282.0</ele><time>2026-04-28T11:07:11.927Z</time></trkpt><trkpt lat="39.51100292315382" lon="9.354626657250593"><ele>282.0</ele><time>2026-04-28T11:07:12.927Z</time></trkpt><trkpt lat="39.51105631237184" lon="9.354708411856766"><ele>282.0</ele><time>2026-04-28T11:07:13.927Z</time></trkpt><trkpt lat="39.5111004182343" lon="9.354777040936725"><ele>283.6666666666667</ele><time>2026-04-28T11:07:14.927Z</time></trkpt><trkpt lat="39.51115104367911" lon="9.354859741217187"><ele>285.3333333333333</ele><time>2026-04-28T11:07:15.927Z</time></trkpt><trkpt lat="39.51118885836377" lon="9.354948425174905"><ele>287.0</ele><time>2026-04-28T11:07:16.927Z</time></trkpt><trkpt lat="39.511231614340275" lon="9.355026163908128"><ele>288.66666666666663</ele><time>2026-04-28T11:07:17.927Z</time></trkpt><trkpt lat="39.511266771902456" lon="9.355115397781736"><ele>290.3333333333333</ele><time>2026-04-28T11:07:18.927Z</time></trkpt><trkpt lat="39.51128112556648" lon="9.355205582901114"><ele>292.0</ele><time>2026-04-28T11:07:19.927Z</time></trkpt><trkpt lat="39.51130841571382" lon="9.35529433494732"><ele>288.3333333333333</ele><time>2026-04-28T11:07:20.927Z</time></trkpt><trkpt lat="39.51134646793621" lon="9.355390347596622"><ele>284.66666666666663</ele><time>2026-04-28T11:07:21.927Z</time></trkpt><trkpt lat="39.511374910567156" lon="9.355477758864566"><ele>281.0</ele><time>2026-04-28T11:07:22.927Z</time></trkpt><trkpt lat="39.511398277024696" lon="9.35555671158113"><ele>277.3333333333333</ele><time>2026-04-28T11:07:23.927Z</time></trkpt><trkpt lat="39.5114593168864" lon="9.355683399778318"><ele>273.6666666666667</ele><time>2026-04-28T11:07:25.927Z</time></trkpt><trkpt lat="39.51153538628161" lon="9.35575319906943"><ele>270.0</ele><time>2026-04-28T11:07:27.927Z</time></trkpt><trkpt lat="39.51161107147514" lon="9.355702196839719"><ele>270.0</ele><time>2026-04-28T11:07:29.927Z</time></trkpt><trkpt lat="39.51165901765856" lon="9.355610709274892"><ele>270.0</ele><time>2026-04-28T11:07:31.927Z</time></trkpt><trkpt lat="39.51164756505167" lon="9.355530361840911"><ele>270.0</ele><time>2026-04-28T11:07:32.927Z</time></trkpt><trkpt lat="39.511606971402486" lon="9.355443862550219"><ele>270.0</ele><time>2026-04-28T11:07:33.927Z</time></trkpt><trkpt lat="39.51156603928828" lon="9.355352909871677"><ele>270.0</ele><time>2026-04-28T11:07:34.927Z</time></trkpt><trkpt lat="39.51152953534564" lon="9.35527179851088"><ele>270.0</ele><time>2026-04-28T11:07:35.928Z</time></trkpt><trkpt lat="39.51150778790491" lon="9.355194870370797"><ele>270.0</ele><time>2026-04-28T11:07:36.928Z</time></trkpt><trkpt lat="39.51148795908282" lon="9.355105673717004"><ele>268.8333333333333</ele><time>2026-04-28T11:07:37.928Z</time></trkpt><trkpt lat="39.511465865304125" lon="9.35499725417677"><ele>267.6666666666667</ele><time>2026-04-28T11:07:38.928Z</time></trkpt><trkpt lat="39.511427602983474" lon="9.35489309990788"><ele>266.5</ele><time>2026-04-28T11:07:39.928Z</time></trkpt><trkpt lat="39.51141928083331" lon="9.354774624471444"><ele>265.33333333333337</ele><time>2026-04-28T11:07:40.928Z</time></trkpt><trkpt lat="39.511393359210466" lon="9.354652198784681"><ele>264.1666666666667</ele><time>2026-04-28T11:07:41.928Z</time></trkpt><trkpt lat="39.51137142124617" lon="9.354548498954461"><ele>263.0</ele><time>2026-04-28T11:07:42.928Z</time></trkpt><trkpt lat="39.51134121340373" lon="9.354437805616545"><ele>262.4</ele><time>2026-04-28T11:07:43.928Z</time></trkpt><trkpt lat="39.5113139126988" lon="9.354323937275502"><ele>261.8</ele><time>2026-04-28T11:07:44.928Z</time></trkpt><trkpt lat="39.51127801763265" lon="9.35420182024481"><ele>261.2</ele><time>2026-04-28T11:07:45.928Z</time></trkpt><trkpt lat="39.51124325652733" lon="9.354086596361908"><ele>260.6</ele><time>2026-04-28T11:07:46.928Z</time></trkpt><trkpt lat="39.511206644552516" lon="9.353968846573657"><ele>260.0</ele><time>2026-04-28T11:07:47.928Z</time></trkpt><trkpt lat="39.511178077066255" lon="9.353856781890984"><ele>260.0</ele><time>2026-04-28T11:07:48.928Z</time></trkpt><trkpt lat="39.51115000779403" lon="9.353753393814193"><ele>260.0</ele><time>2026-04-28T11:07:49.928Z</time></trkpt><trkpt lat="39.511109920546446" lon="9.353654657795559"><ele>260.0</ele><time>2026-04-28T11:07:50.928Z</time></trkpt><trkpt lat="39.51108020370921" lon="9.353574551430375"><ele>260.0</ele><time>2026-04-28T11:07:51.928Z</time></trkpt><trkpt lat="39.511057417332175" lon="9.353466021957416"><ele>260.0</ele><time>2026-04-28T11:07:53.928Z</time></trkpt><trkpt lat="39.511094431865345" lon="9.35337517185537"><ele>260.0</ele><time>2026-04-28T11:07:55.928Z</time></trkpt><trkpt lat="39.51117725853794" lon="9.353355561030902"><ele>254.2</ele><time>2026-04-28T11:07:57.928Z</time></trkpt><trkpt lat="39.511263171974825" lon="9.353424967454249"><ele>248.4</ele><time>2026-04-28T11:07:59.928Z</time></trkpt><trkpt lat="39.51135152322732" lon="9.353526261946428"><ele>242.60000000000002</ele><time>2026-04-28T11:08:01.928Z</time></trkpt><trkpt lat="39.511463754061054" lon="9.353619601583688"><ele>236.8</ele><time>2026-04-28T11:08:03.928Z</time></trkpt><trkpt lat="39.5115061384936" lon="9.353680660775868"><ele>231.0</ele><time>2026-04-28T11:08:04.928Z</time></trkpt><trkpt lat="39.51157485666135" lon="9.353740367941931"><ele>231.0</ele><time>2026-04-28T11:08:05.928Z</time></trkpt><trkpt lat="39.51162955898749" lon="9.353791474925634"><ele>231.0</ele><time>2026-04-28T11:08:06.928Z</time></trkpt><trkpt lat="39.51167980405647" lon="9.353843820061051"><ele>231.0</ele><time>2026-04-28T11:08:07.928Z</time></trkpt><trkpt lat="39.5117384435618" lon="9.35390586938601"><ele>231.0</ele><time>2026-04-28T11:08:08.928Z</time></trkpt><trkpt lat="39.51178326700343" lon="9.3539692571751"><ele>231.0</ele><time>2026-04-28T11:08:09.928Z</time></trkpt><trkpt lat="39.5118288203078" lon="9.354043596833238"><ele>231.0</ele><time>2026-04-28T11:08:10.928Z</time></trkpt><trkpt lat="39.51186217432615" lon="9.354145702622297"><ele>231.0</ele><time>2026-04-28T11:08:11.928Z</time></trkpt><trkpt lat="39.511942890218656" lon="9.354251339186762"><ele>228.83333333333334</ele><time>2026-04-28T11:08:13.928Z</time></trkpt><trkpt lat="39.51203383787204" lon="9.354318638714599"><ele>226.66666666666669</ele><time>2026-04-28T11:08:15.928Z</time></trkpt><trkpt lat="39.51209951900859" lon="9.354322600624776"><ele>224.5</ele><time>2026-04-28T11:08:16.928Z</time></trkpt><trkpt lat="39.51222652866537" lon="9.354329383473642"><ele>222.33333333333334</ele><time>2026-04-28T11:08:18.928Z</time></trkpt><trkpt lat="39.51229405448794" lon="9.354353055791822"><ele>220.16666666666669</ele><time>2026-04-28T11:08:19.928Z</time></trkpt><trkpt lat="39.51236918716574" lon="9.354379864050888"><ele>218.0</ele><time>2026-04-28T11:08:20.927Z</time></trkpt><trkpt lat="39.51243955161886" lon="9.354407474069223"><ele>218.00000000000003</ele><time>2026-04-28T11:08:21.927Z</time></trkpt><trkpt lat="39.51249770725199" lon="9.354445951853322"><ele>218.0</ele><time>2026-04-28T11:08:22.927Z</time></trkpt><trkpt lat="39.51256288976622" lon="9.35457597965712"><ele>218.0</ele><time>2026-04-28T11:08:24.927Z</time></trkpt><trkpt lat="39.51257948592578" lon="9.354668270519806"><ele>218.0</ele><time>2026-04-28T11:08:25.927Z</time></trkpt><trkpt lat="39.51257554855255" lon="9.354764394777067"><ele>218.00000000000003</ele><time>2026-04-28T11:08:26.927Z</time></trkpt><trkpt lat="39.51259619989162" lon="9.354848470189403"><ele>218.0</ele><time>2026-04-28T11:08:27.927Z</time></trkpt><trkpt lat="39.51260249129458" lon="9.35493753097792"><ele>221.2</ele><time>2026-04-28T11:08:28.927Z</time></trkpt><trkpt lat="39.51264813105961" lon="9.355097775344822"><ele>224.4</ele><time>2026-04-28T11:08:30.927Z</time></trkpt><trkpt lat="39.512697746296986" lon="9.355191293619642"><ele>227.59999999999997</ele><time>2026-04-28T11:08:31.927Z</time></trkpt><trkpt lat="39.51274071267633" lon="9.355298654713462"><ele>230.79999999999998</ele><time>2026-04-28T11:08:32.927Z</time></trkpt><trkpt lat="39.512801616545104" lon="9.355395320506638"><ele>234.0</ele><time>2026-04-28T11:08:33.927Z</time></trkpt><trkpt lat="39.512860116286696" lon="9.35549312099184"><ele>229.39999999999998</ele><time>2026-04-28T11:08:34.928Z</time></trkpt><trkpt lat="39.512923088143005" lon="9.355590392514195"><ele>224.79999999999998</ele><time>2026-04-28T11:08:35.928Z</time></trkpt><trkpt lat="39.51295655696495" lon="9.35571120501651"><ele>220.2</ele><time>2026-04-28T11:08:36.928Z</time></trkpt><trkpt lat="39.51300809058229" lon="9.355831776006882"><ele>215.60000000000002</ele><time>2026-04-28T11:08:37.928Z</time></trkpt><trkpt lat="39.51305332973752" lon="9.355950574767895"><ele>211.0</ele><time>2026-04-28T11:08:38.928Z</time></trkpt><trkpt lat="39.51309645200721" lon="9.356065450930847"><ele>210.99999999999997</ele><time>2026-04-28T11:08:39.928Z</time></trkpt><trkpt lat="39.513140316487366" lon="9.356174791012213"><ele>211.0</ele><time>2026-04-28T11:08:40.928Z</time></trkpt><trkpt lat="39.513184551053236" lon="9.35627806276257"><ele>211.0</ele><time>2026-04-28T11:08:41.928Z</time></trkpt><trkpt lat="39.51322991395496" lon="9.356380114792527"><ele>211.0</ele><time>2026-04-28T11:08:42.928Z</time></trkpt><trkpt lat="39.513258296273754" lon="9.35647804750517"><ele>210.99999999999997</ele><time>2026-04-28T11:08:43.928Z</time></trkpt><trkpt lat="39.51328612575318" lon="9.356567961845137"><ele>211.0</ele><time>2026-04-28T11:08:45.928Z</time></trkpt><trkpt lat="39.513411665941454" lon="9.35658235469827"><ele>210.99999999999997</ele><time>2026-04-28T11:08:48.928Z</time></trkpt><trkpt lat="39.51346846804373" lon="9.356466740770612"><ele>211.0</ele><time>2026-04-28T11:08:50.928Z</time></trkpt><trkpt lat="39.51348631927099" lon="9.356363558550731"><ele>211.0</ele><time>2026-04-28T11:08:51.928Z</time></trkpt><trkpt lat="39.51349586507163" lon="9.35625235319503"><ele>211.0</ele><time>2026-04-28T11:08:52.928Z</time></trkpt><trkpt lat="39.51350516743373" lon="9.356155515225792"><ele>210.99999999999997</ele><time>2026-04-28T11:08:53.928Z</time></trkpt><trkpt lat="39.51352131511197" lon="9.356050473879957"><ele>211.0</ele><time>2026-04-28T11:08:54.928Z</time></trkpt><trkpt lat="39.51350902862476" lon="9.355941203881489"><ele>211.0</ele><time>2026-04-28T11:08:55.928Z</time></trkpt><trkpt lat="39.51346857677002" lon="9.355846012769232"><ele>211.0</ele><time>2026-04-28T11:08:56.928Z</time></trkpt><trkpt lat="39.513434046134044" lon="9.355732341565531"><ele>211.0</ele><time>2026-04-28T11:08:57.928Z</time></trkpt><trkpt lat="39.513393571700576" lon="9.355620978298393"><ele>211.0</ele><time>2026-04-28T11:08:58.928Z</time></trkpt><trkpt lat="39.51335745415145" lon="9.355504855656559"><ele>211.0</ele><time>2026-04-28T11:08:59.928Z</time></trkpt><trkpt lat="39.513323315120005" lon="9.355392170534204"><ele>209.66666666666666</ele><time>2026-04-28T11:09:00.928Z</time></trkpt><trkpt lat="39.51328737624982" lon="9.355277069843915"><ele>208.33333333333331</ele><time>2026-04-28T11:09:01.928Z</time></trkpt><trkpt lat="39.51326201080214" lon="9.355167853835326"><ele>207.0</ele><time>2026-04-28T11:09:02.928Z</time></trkpt><trkpt lat="39.51326830207318" lon="9.355066329446176"><ele>205.66666666666669</ele><time>2026-04-28T11:09:03.928Z</time></trkpt><trkpt lat="39.51325836200045" lon="9.354975546939079"><ele>204.33333333333334</ele><time>2026-04-28T11:09:04.928Z</time></trkpt><trkpt lat="39.51327071619613" lon="9.354886135224307"><ele>203.0</ele><time>2026-04-28T11:09:05.928Z</time></trkpt><trkpt lat="39.51329203625644" lon="9.35479612492676"><ele>203.00000000000003</ele><time>2026-04-28T11:09:06.928Z</time></trkpt><trkpt lat="39.5133208433564" lon="9.35471992117327"><ele>203.0</ele><time>2026-04-28T11:09:07.928Z</time></trkpt><trkpt lat="39.513389540581464" lon="9.354655888478694"><ele>203.0</ele><time>2026-04-28T11:09:09.928Z</time></trkpt><trkpt lat="39.513448975314326" lon="9.354694261072325"><ele>203.0</ele><time>2026-04-28T11:09:11.928Z</time></trkpt><trkpt lat="39.5134642541028" lon="9.354801132460226"><ele>203.00000000000003</ele><time>2026-04-28T11:09:13.928Z</time></trkpt><trkpt lat="39.51341211044716" lon="9.354950124300697"><ele>203.0</ele><time>2026-04-28T11:09:15.928Z</time></trkpt><trkpt lat="39.513410945087" lon="9.355096770806828"><ele>203.00000000000003</ele><time>2026-04-28T11:09:17.928Z</time></trkpt><trkpt lat="39.51346378585312" lon="9.355152683463007"><ele>203.0</ele><time>2026-04-28T11:09:18.928Z</time></trkpt><trkpt lat="39.51352513315705" lon="9.355200249504287"><ele>203.0</ele><time>2026-04-28T11:09:19.929Z</time></trkpt><trkpt lat="39.51359993201947" lon="9.355249516432915"><ele>203.0</ele><time>2026-04-28T11:09:20.929Z</time></trkpt><trkpt lat="39.513674319914486" lon="9.355295343328992"><ele>203.00000000000003</ele><time>2026-04-28T11:09:21.929Z</time></trkpt><trkpt lat="39.513752867441454" lon="9.355340489876179"><ele>203.0</ele><time>2026-04-28T11:09:22.929Z</time></trkpt><trkpt lat="39.513820136294235" lon="9.355404947201107"><ele>198.4</ele><time>2026-04-28T11:09:23.929Z</time></trkpt><trkpt lat="39.51391102052115" lon="9.355458090878702"><ele>193.8</ele><time>2026-04-28T11:09:24.929Z</time></trkpt><trkpt lat="39.514000031944846" lon="9.355515977084979"><ele>189.2</ele><time>2026-04-28T11:09:25.929Z</time></trkpt><trkpt lat="39.51407871408791" lon="9.355579862913196"><ele>184.6</ele><time>2026-04-28T11:09:26.929Z</time></trkpt><trkpt lat="39.514152501820924" lon="9.355660139910034"><ele>180.0</ele><time>2026-04-28T11:09:27.929Z</time></trkpt><trkpt lat="39.51419936804191" lon="9.355761149150903"><ele>180.0</ele><time>2026-04-28T11:09:28.929Z</time></trkpt><trkpt lat="39.51423904733939" lon="9.355846127985082"><ele>180.0</ele><time>2026-04-28T11:09:29.929Z</time></trkpt><trkpt lat="39.51428086372223" lon="9.355923569000902"><ele>180.0</ele><time>2026-04-28T11:09:30.929Z</time></trkpt><trkpt lat="39.514273413762325" lon="9.35603212803418"><ele>180.0</ele><time>2026-04-28T11:09:31.929Z</time></trkpt><trkpt lat="39.51425617922689" lon="9.35612244064036"><ele>180.0</ele><time>2026-04-28T11:09:32.929Z</time></trkpt><trkpt lat="39.51423939565644" lon="9.356240631800894"><ele>180.0</ele><time>2026-04-28T11:09:33.929Z</time></trkpt><trkpt lat="39.51420900433564" lon="9.356348302553469"><ele>180.16666666666666</ele><time>2026-04-28T11:09:34.929Z</time></trkpt><trkpt lat="39.51420798730018" lon="9.356459163918675"><ele>180.33333333333334</ele><time>2026-04-28T11:09:35.929Z</time></trkpt><trkpt lat="39.514203354796905" lon="9.356555466561234"><ele>180.5</ele><time>2026-04-28T11:09:36.929Z</time></trkpt><trkpt lat="39.514223357146115" lon="9.356658593424472"><ele>180.66666666666669</ele><time>2026-04-28T11:09:37.929Z</time></trkpt><trkpt lat="39.51426509437305" lon="9.356769034183436"><ele>180.83333333333334</ele><time>2026-04-28T11:09:38.929Z</time></trkpt><trkpt lat="39.51431812821038" lon="9.356893343812546"><ele>181.0</ele><time>2026-04-28T11:09:39.929Z</time></trkpt><trkpt lat="39.5143503779783" lon="9.357023463317306"><ele>181.0</ele><time>2026-04-28T11:09:40.929Z</time></trkpt><trkpt lat="39.51438348208674" lon="9.357138707356388"><ele>181.0</ele><time>2026-04-28T11:09:41.929Z</time></trkpt><trkpt lat="39.51441545951231" lon="9.357234317031137"><ele>181.0</ele><time>2026-04-28T11:09:42.929Z</time></trkpt><trkpt lat="39.514444232666605" lon="9.357398218472767"><ele>181.0</ele><time>2026-04-28T11:09:44.929Z</time></trkpt><trkpt lat="39.514453780394106" lon="9.357520925321777"><ele>181.0</ele><time>2026-04-28T11:09:46.929Z</time></trkpt><trkpt lat="39.51454637699504" lon="9.357562207722104"><ele>181.0</ele><time>2026-04-28T11:09:49.929Z</time></trkpt><trkpt lat="39.514588032963196" lon="9.357497704397302"><ele>181.0</ele><time>2026-04-28T11:09:50.929Z</time></trkpt><trkpt lat="39.51460324369231" lon="9.357397406253236"><ele>181.0</ele><time>2026-04-28T11:09:51.929Z</time></trkpt><trkpt lat="39.514567848147315" lon="9.357269532520023"><ele>181.0</ele><time>2026-04-28T11:09:52.929Z</time></trkpt><trkpt lat="39.514547288175244" lon="9.357120480048502"><ele>181.0</ele><time>2026-04-28T11:09:53.929Z</time></trkpt><trkpt lat="39.51454981266492" lon="9.356964896577498"><ele>181.0</ele><time>2026-04-28T11:09:54.929Z</time></trkpt><trkpt lat="39.51454068436386" lon="9.356819171556984"><ele>181.0</ele><time>2026-04-28T11:09:55.929Z</time></trkpt><trkpt lat="39.51453002652404" lon="9.35668353640117"><ele>181.0</ele><time>2026-04-28T11:09:56.929Z</time></trkpt><trkpt lat="39.51456443257227" lon="9.356583640002503"><ele>181.0</ele><time>2026-04-28T11:09:57.929Z</time></trkpt><trkpt lat="39.51459386375734" lon="9.35649955073586"><ele>181.0</ele><time>2026-04-28T11:09:58.929Z</time></trkpt><trkpt lat="39.51463179094406" lon="9.356414050717511"><ele>174.0</ele><time>2026-04-28T11:09:59.929Z</time></trkpt><trkpt lat="39.514708920278075" lon="9.356318514146169"><ele>167.0</ele><time>2026-04-28T11:10:00.929Z</time></trkpt><trkpt lat="39.514799952066774" lon="9.35621971586482"><ele>160.0</ele><time>2026-04-28T11:10:01.929Z</time></trkpt><trkpt lat="39.514897125718235" lon="9.356124365548949"><ele>153.0</ele><time>2026-04-28T11:10:02.929Z</time></trkpt><trkpt lat="39.51499415648666" lon="9.356030257107278"><ele>153.0</ele><time>2026-04-28T11:10:03.929Z</time></trkpt><trkpt lat="39.515094381216805" lon="9.355959859641015"><ele>153.0</ele><time>2026-04-28T11:10:04.929Z</time></trkpt><trkpt lat="39.515169444835706" lon="9.355884243060316"><ele>153.0</ele><time>2026-04-28T11:10:05.93Z</time></trkpt><trkpt lat="39.51523221694466" lon="9.355800801953066"><ele>153.0</ele><time>2026-04-28T11:10:06.93Z</time></trkpt><trkpt lat="39.515299446999684" lon="9.355691803108517"><ele>153.0</ele><time>2026-04-28T11:10:07.93Z</time></trkpt><trkpt lat="39.515363947605" lon="9.355576604866393"><ele>150.33333333333334</ele><time>2026-04-28T11:10:08.93Z</time></trkpt><trkpt lat="39.51542584780444" lon="9.355489062861125"><ele>147.66666666666666</ele><time>2026-04-28T11:10:09.93Z</time></trkpt><trkpt lat="39.51548207644992" lon="9.355426956146841"><ele>145.0</ele><time>2026-04-28T11:10:10.93Z</time></trkpt><trkpt lat="39.515539866756164" lon="9.355386745834592"><ele>142.33333333333331</ele><time>2026-04-28T11:10:11.93Z</time></trkpt><trkpt lat="39.51560298121347" lon="9.355375241918942"><ele>139.66666666666666</ele><time>2026-04-28T11:10:12.93Z</time></trkpt><trkpt lat="39.515727521965005" lon="9.355374416346104"><ele>137.0</ele><time>2026-04-28T11:10:14.93Z</time></trkpt><trkpt lat="39.51579185443691" lon="9.355382703899906"><ele>137.0</ele><time>2026-04-28T11:10:15.93Z</time></trkpt><trkpt lat="39.515857336309125" lon="9.355407698651673"><ele>137.0</ele><time>2026-04-28T11:10:16.93Z</time></trkpt><trkpt lat="39.515957782441916" lon="9.355386470551922"><ele>137.0</ele><time>2026-04-28T11:10:18.93Z</time></trkpt><trkpt lat="39.51608408133344" lon="9.355329159754023"><ele>137.0</ele><time>2026-04-28T11:10:20.93Z</time></trkpt><trkpt lat="39.516173253931804" lon="9.355277918540708"><ele>137.0</ele><time>2026-04-28T11:10:21.93Z</time></trkpt><trkpt lat="39.51626357968887" lon="9.355218685565074"><ele>136.6</ele><time>2026-04-28T11:10:22.93Z</time></trkpt><trkpt lat="39.51635815987404" lon="9.355193175507878"><ele>136.2</ele><time>2026-04-28T11:10:23.93Z</time></trkpt><trkpt lat="39.51643577496039" lon="9.355184276414702"><ele>135.8</ele><time>2026-04-28T11:10:24.93Z</time></trkpt><trkpt lat="39.516512992145884" lon="9.35525632189241"><ele>135.4</ele><time>2026-04-28T11:10:25.93Z</time></trkpt><trkpt lat="39.51658821458252" lon="9.355324301429482"><ele>135.0</ele><time>2026-04-28T11:10:26.928Z</time></trkpt><trkpt lat="39.51667774153809" lon="9.355403196350682"><ele>135.0</ele><time>2026-04-28T11:10:27.928Z</time></trkpt><trkpt lat="39.51678580826466" lon="9.35547924042322"><ele>135.0</ele><time>2026-04-28T11:10:28.928Z</time></trkpt><trkpt lat="39.51687286641762" lon="9.355541253807939"><ele>135.0</ele><time>2026-04-28T11:10:29.927Z</time></trkpt><trkpt lat="39.516941394044984" lon="9.355559398050207"><ele>135.0</ele><time>2026-04-28T11:10:30.927Z</time></trkpt><trkpt lat="39.51700765791088" lon="9.35555529658919"><ele>135.0</ele><time>2026-04-28T11:10:31.927Z</time></trkpt><trkpt lat="39.51708059450125" lon="9.355532543313467"><ele>135.0</ele><time>2026-04-28T11:10:32.928Z</time></trkpt><trkpt lat="39.51715491500996" lon="9.35549289880227"><ele>134.6</ele><time>2026-04-28T11:10:33.927Z</time></trkpt><trkpt lat="39.51723815293485" lon="9.355470158742197"><ele>134.2</ele><time>2026-04-28T11:10:34.927Z</time></trkpt><trkpt lat="39.5173227218526" lon="9.355503005820225"><ele>133.8</ele><time>2026-04-28T11:10:35.927Z</time></trkpt><trkpt lat="39.517419014268825" lon="9.355514610914028"><ele>133.4</ele><time>2026-04-28T11:10:36.928Z</time></trkpt><trkpt lat="39.517525136746166" lon="9.355574722547011"><ele>133.0</ele><time>2026-04-28T11:10:37.928Z</time></trkpt><trkpt lat="39.51763137947262" lon="9.355622116344753"><ele>138.25</ele><time>2026-04-28T11:10:38.927Z</time></trkpt><trkpt lat="39.517751452510204" lon="9.355672312371434"><ele>143.5</ele><time>2026-04-28T11:10:39.928Z</time></trkpt><trkpt lat="39.517848633546514" lon="9.355712191841949"><ele>148.75</ele><time>2026-04-28T11:10:40.928Z</time></trkpt><trkpt lat="39.517961445319884" lon="9.355738607433759"><ele>154.0</ele><time>2026-04-28T11:10:41.928Z</time></trkpt><trkpt lat="39.518074064151314" lon="9.355755969901878"><ele>154.0</ele><time>2026-04-28T11:10:42.928Z</time></trkpt><trkpt lat="39.518180861943584" lon="9.355787618873814"><ele>154.0</ele><time>2026-04-28T11:10:43.928Z</time></trkpt><trkpt lat="39.5182806804369" lon="9.355815571184188"><ele>154.0</ele><time>2026-04-28T11:10:44.928Z</time></trkpt><trkpt lat="39.51836675696548" lon="9.355806725890963"><ele>154.0</ele><time>2026-04-28T11:10:45.928Z</time></trkpt><trkpt lat="39.51845083180595" lon="9.355782192580245"><ele>154.0</ele><time>2026-04-28T11:10:46.928Z</time></trkpt><trkpt lat="39.51854079332397" lon="9.355746172933436"><ele>154.0</ele><time>2026-04-28T11:10:47.928Z</time></trkpt><trkpt lat="39.5186421346788" lon="9.355699329646392"><ele>154.0</ele><time>2026-04-28T11:10:48.928Z</time></trkpt><trkpt lat="39.5187523426867" lon="9.355647271073636"><ele>154.0</ele><time>2026-04-28T11:10:49.928Z</time></trkpt><trkpt lat="39.51884829218251" lon="9.355609798297625"><ele>154.0</ele><time>2026-04-28T11:10:50.928Z</time></trkpt><trkpt lat="39.51892967178464" lon="9.355591742964275"><ele>154.0</ele><time>2026-04-28T11:10:51.928Z</time></trkpt><trkpt lat="39.519000884270575" lon="9.355595448658246"><ele>153.0</ele><time>2026-04-28T11:10:52.928Z</time></trkpt><trkpt lat="39.51906599238505" lon="9.35565482608785"><ele>152.0</ele><time>2026-04-28T11:10:53.928Z</time></trkpt><trkpt lat="39.51912245934741" lon="9.355732347147065"><ele>151.0</ele><time>2026-04-28T11:10:54.928Z</time></trkpt><trkpt lat="39.51918139698006" lon="9.355802655555678"><ele>150.0</ele><time>2026-04-28T11:10:55.928Z</time></trkpt><trkpt lat="39.519235972493746" lon="9.355888909272045"><ele>149.0</ele><time>2026-04-28T11:10:56.928Z</time></trkpt><trkpt lat="39.519260053442515" lon="9.355990156658379"><ele>148.0</ele><time>2026-04-28T11:10:57.928Z</time></trkpt><trkpt lat="39.51926526765818" lon="9.35609313285237"><ele>148.0</ele><time>2026-04-28T11:10:58.928Z</time></trkpt><trkpt lat="39.5192510869861" lon="9.356198096041188"><ele>148.0</ele><time>2026-04-28T11:10:59.928Z</time></trkpt><trkpt lat="39.51923647908188" lon="9.35633829136326"><ele>148.0</ele><time>2026-04-28T11:11:00.928Z</time></trkpt><trkpt lat="39.519228766472" lon="9.356463352237707"><ele>148.0</ele><time>2026-04-28T11:11:01.928Z</time></trkpt><trkpt lat="39.51923034840215" lon="9.356559633852191"><ele>148.0</ele><time>2026-04-28T11:11:02.928Z</time></trkpt><trkpt lat="39.51928257304531" lon="9.356668006118426"><ele>149.8</ele><time>2026-04-28T11:11:04.928Z</time></trkpt><trkpt lat="39.51940458334472" lon="9.356634687540621"><ele>151.60000000000002</ele><time>2026-04-28T11:11:06.928Z</time></trkpt><trkpt lat="39.51947362908032" lon="9.356619025486596"><ele>153.39999999999998</ele><time>2026-04-28T11:11:07.928Z</time></trkpt><trkpt lat="39.519564428206685" lon="9.356592452798234"><ele>155.2</ele><time>2026-04-28T11:11:08.928Z</time></trkpt><trkpt lat="39.519665374539045" lon="9.356585900850494"><ele>157.0</ele><time>2026-04-28T11:11:09.928Z</time></trkpt><trkpt lat="39.519765884678996" lon="9.356613419164315"><ele>153.4</ele><time>2026-04-28T11:11:10.928Z</time></trkpt><trkpt lat="39.519855530536546" lon="9.356647917227832"><ele>149.79999999999998</ele><time>2026-04-28T11:11:11.928Z</time></trkpt><trkpt lat="39.519933058987526" lon="9.35671195529892"><ele>146.2</ele><time>2026-04-28T11:11:12.928Z</time></trkpt><trkpt lat="39.52000427846462" lon="9.356808893489132"><ele>142.6</ele><time>2026-04-28T11:11:13.928Z</time></trkpt><trkpt lat="39.52005521204275" lon="9.35690391885139"><ele>139.0</ele><time>2026-04-28T11:11:14.928Z</time></trkpt><trkpt lat="39.520082473428275" lon="9.356990081188371"><ele>139.0</ele><time>2026-04-28T11:11:15.928Z</time></trkpt><trkpt lat="39.520075853865194" lon="9.357089052217642"><ele>139.0</ele><time>2026-04-28T11:11:16.928Z</time></trkpt><trkpt lat="39.520074904923675" lon="9.357224966772657"><ele>139.0</ele><time>2026-04-28T11:11:17.928Z</time></trkpt><trkpt lat="39.520072382105404" lon="9.35737469722641"><ele>139.0</ele><time>2026-04-28T11:11:18.928Z</time></trkpt><trkpt lat="39.52008442453002" lon="9.357508048649965"><ele>139.0</ele><time>2026-04-28T11:11:19.928Z</time></trkpt><trkpt lat="39.520128732227576" lon="9.357612696053248"><ele>141.4</ele><time>2026-04-28T11:11:20.928Z</time></trkpt><trkpt lat="39.52017615931537" lon="9.357712689080548"><ele>143.8</ele><time>2026-04-28T11:11:21.928Z</time></trkpt><trkpt lat="39.520233196631665" lon="9.357827683965771"><ele>146.2</ele><time>2026-04-28T11:11:22.928Z</time></trkpt><trkpt lat="39.520270156709756" lon="9.357950738443133"><ele>148.6</ele><time>2026-04-28T11:11:23.929Z</time></trkpt><trkpt lat="39.52032861980451" lon="9.358075358471725"><ele>151.0</ele><time>2026-04-28T11:11:24.929Z</time></trkpt><trkpt lat="39.52039075957453" lon="9.358200211419865"><ele>146.0</ele><time>2026-04-28T11:11:25.929Z</time></trkpt><trkpt lat="39.52046567473656" lon="9.358314501600777"><ele>141.0</ele><time>2026-04-28T11:11:26.929Z</time></trkpt><trkpt lat="39.52054517484227" lon="9.358430711132536"><ele>136.0</ele><time>2026-04-28T11:11:27.929Z</time></trkpt><trkpt lat="39.520623142001384" lon="9.358543484726813"><ele>131.0</ele><time>2026-04-28T11:11:28.929Z</time></trkpt><trkpt lat="39.520711979053104" lon="9.358655581738981"><ele>131.0</ele><time>2026-04-28T11:11:29.929Z</time></trkpt><trkpt lat="39.5207867207388" lon="9.35876146896938"><ele>131.0</ele><time>2026-04-28T11:11:30.929Z</time></trkpt><trkpt lat="39.52084180843493" lon="9.358834086501396"><ele>131.0</ele><time>2026-04-28T11:11:31.929Z</time></trkpt><trkpt lat="39.52089406303195" lon="9.358879882449308"><ele>131.0</ele><time>2026-04-28T11:11:32.929Z</time></trkpt><trkpt lat="39.52103500767434" lon="9.35888090919687"><ele>131.0</ele><time>2026-04-28T11:11:34.929Z</time></trkpt><trkpt lat="39.521123789778976" lon="9.358858403802323"><ele>131.5</ele><time>2026-04-28T11:11:35.929Z</time></trkpt><trkpt lat="39.521251743721976" lon="9.358842288962773"><ele>132.0</ele><time>2026-04-28T11:11:36.929Z</time></trkpt><trkpt lat="39.521384891046445" lon="9.358855095190664"><ele>132.5</ele><time>2026-04-28T11:11:37.929Z</time></trkpt><trkpt lat="39.521522045066945" lon="9.358875195559014"><ele>133.0</ele><time>2026-04-28T11:11:38.929Z</time></trkpt><trkpt lat="39.521650065831324" lon="9.358889595415262"><ele>133.0</ele><time>2026-04-28T11:11:39.929Z</time></trkpt><trkpt lat="39.52176201075333" lon="9.358898125113518"><ele>133.0</ele><time>2026-04-28T11:11:40.929Z</time></trkpt><trkpt lat="39.5218413326569" lon="9.358885584057953"><ele>133.0</ele><time>2026-04-28T11:11:41.929Z</time></trkpt><trkpt lat="39.5219112353924" lon="9.358866992765279"><ele>133.0</ele><time>2026-04-28T11:11:42.929Z</time></trkpt><trkpt lat="39.5219712960038" lon="9.358817662265155"><ele>133.0</ele><time>2026-04-28T11:11:43.929Z</time></trkpt><trkpt lat="39.52205546113856" lon="9.358759957393783"><ele>133.0</ele><time>2026-04-28T11:11:45.929Z</time></trkpt><trkpt lat="39.522084087613706" lon="9.358884871150083"><ele>133.0</ele><time>2026-04-28T11:11:48.929Z</time></trkpt><trkpt lat="39.52201282959775" lon="9.35894092440733"><ele>133.0</ele><time>2026-04-28T11:11:49.929Z</time></trkpt><trkpt lat="39.52195898869809" lon="9.359038774785075"><ele>133.0</ele><time>2026-04-28T11:11:50.929Z</time></trkpt><trkpt lat="39.521862906776924" lon="9.359133282428125"><ele>133.0</ele><time>2026-04-28T11:11:51.929Z</time></trkpt><trkpt lat="39.521780204851176" lon="9.359254570599475"><ele>133.0</ele><time>2026-04-28T11:11:52.929Z</time></trkpt><trkpt lat="39.52170786903506" lon="9.359379752633867"><ele>133.0</ele><time>2026-04-28T11:11:53.929Z</time></trkpt><trkpt lat="39.52165453984446" lon="9.359489399253986"><ele>133.0</ele><time>2026-04-28T11:11:54.929Z</time></trkpt><trkpt lat="39.521622434800406" lon="9.359597009299929"><ele>133.0</ele><time>2026-04-28T11:11:55.929Z</time></trkpt><trkpt lat="39.521607475804146" lon="9.359715461615366"><ele>133.0</ele><time>2026-04-28T11:11:56.929Z</time></trkpt><trkpt lat="39.52161081535969" lon="9.359811380360538"><ele>133.0</ele><time>2026-04-28T11:11:57.929Z</time></trkpt><trkpt lat="39.5216313232687" lon="9.359900468390302"><ele>133.0</ele><time>2026-04-28T11:11:59.929Z</time></trkpt><trkpt lat="39.521743568375264" lon="9.359794004962705"><ele>133.0</ele><time>2026-04-28T11:12:07.929Z</time></trkpt><trkpt lat="39.52183030073846" lon="9.359693485567217"><ele>133.0</ele><time>2026-04-28T11:12:09.93Z</time></trkpt><trkpt lat="39.521886109447806" lon="9.359635818432524"><ele>133.0</ele><time>2026-04-28T11:12:10.93Z</time></trkpt><trkpt lat="39.521938222476656" lon="9.359557309296312"><ele>133.0</ele><time>2026-04-28T11:12:11.93Z</time></trkpt><trkpt lat="39.52199936621109" lon="9.3595017538315"><ele>133.0</ele><time>2026-04-28T11:12:12.93Z</time></trkpt><trkpt lat="39.522054437117596" lon="9.359432928687555"><ele>133.0</ele><time>2026-04-28T11:12:13.93Z</time></trkpt><trkpt lat="39.522164106946235" lon="9.359292412033076"><ele>130.83333333333334</ele><time>2026-04-28T11:12:15.93Z</time></trkpt><trkpt lat="39.52224314231765" lon="9.35921275218635"><ele>128.66666666666669</ele><time>2026-04-28T11:12:17.93Z</time></trkpt><trkpt lat="39.52229586427185" lon="9.359163085287465"><ele>126.5</ele><time>2026-04-28T11:12:21.93Z</time></trkpt><trkpt lat="39.52234705063468" lon="9.359110817615843"><ele>124.33333333333334</ele><time>2026-04-28T11:14:15.93Z</time></trkpt><trkpt lat="39.52242593170652" lon="9.359031773097897"><ele>122.16666666666667</ele><time>2026-04-28T11:14:40.928Z</time></trkpt><trkpt lat="39.522484287022074" lon="9.358965779898634"><ele>120.0</ele><time>2026-04-28T11:14:41.927Z</time></trkpt><trkpt lat="39.522530816359954" lon="9.358910151763387"><ele>119.83333333333333</ele><time>2026-04-28T11:14:42.928Z</time></trkpt><trkpt lat="39.52256324943799" lon="9.358812344587312"><ele>119.66666666666666</ele><time>2026-04-28T11:14:43.928Z</time></trkpt><trkpt lat="39.5225943372448" lon="9.358733183524254"><ele>119.5</ele><time>2026-04-28T11:14:44.928Z</time></trkpt><trkpt lat="39.52261589429737" lon="9.358650939129065"><ele>119.33333333333333</ele><time>2026-04-28T11:14:45.928Z</time></trkpt><trkpt lat="39.52262111844407" lon="9.358556546558592"><ele>119.16666666666666</ele><time>2026-04-28T11:14:46.928Z</time></trkpt><trkpt lat="39.52261094065006" lon="9.358475229263014"><ele>119.0</ele><time>2026-04-28T11:14:47.927Z</time></trkpt><trkpt lat="39.52255550887866" lon="9.35834560524257"><ele>119.0</ele><time>2026-04-28T11:14:49.928Z</time></trkpt><trkpt lat="39.52245661741897" lon="9.358240869721383"><ele>119.0</ele><time>2026-04-28T11:14:51.928Z</time></trkpt><trkpt lat="39.5223853461709" lon="9.358208145010623"><ele>119.0</ele><time>2026-04-28T11:14:52.928Z</time></trkpt><trkpt lat="39.52230720878603" lon="9.358176995917221"><ele>119.0</ele><time>2026-04-28T11:14:53.928Z</time></trkpt><trkpt lat="39.522216608886836" lon="9.358147586617008"><ele>119.0</ele><time>2026-04-28T11:14:54.928Z</time></trkpt><trkpt lat="39.52211819858075" lon="9.358143115953045"><ele>119.49999999999999</ele><time>2026-04-28T11:14:55.928Z</time></trkpt><trkpt lat="39.522032686963584" lon="9.358132905890304"><ele>120.0</ele><time>2026-04-28T11:14:56.928Z</time></trkpt><trkpt lat="39.52195231190706" lon="9.358118012746475"><ele>120.5</ele><time>2026-04-28T11:14:57.928Z</time></trkpt><trkpt lat="39.521842447663694" lon="9.35805501896106"><ele>121.0</ele><time>2026-04-28T11:14:59.928Z</time></trkpt><trkpt lat="39.52179863604691" lon="9.357960792771818"><ele>121.49999999999999</ele><time>2026-04-28T11:15:01.928Z</time></trkpt><trkpt lat="39.52175219660594" lon="9.357884012007137"><ele>122.0</ele><time>2026-04-28T11:15:03.928Z</time></trkpt><trkpt lat="39.52168910568766" lon="9.357784045435217"><ele>122.19999999999999</ele><time>2026-04-28T11:15:06.928Z</time></trkpt><trkpt lat="39.52163334749703" lon="9.357740267361239"><ele>122.39999999999999</ele><time>2026-04-28T11:15:08.928Z</time></trkpt><trkpt lat="39.52155318936143" lon="9.357734693898779"><ele>122.60000000000001</ele><time>2026-04-28T11:15:10.928Z</time></trkpt><trkpt lat="39.52146021413424" lon="9.357725598625093"><ele>122.80000000000001</ele><time>2026-04-28T11:15:12.928Z</time></trkpt><trkpt lat="39.52136043845287" lon="9.357692019690687"><ele>123.0</ele><time>2026-04-28T11:15:14.928Z</time></trkpt><trkpt lat="39.521257208822895" lon="9.357648092898534"><ele>122.83333333333333</ele><time>2026-04-28T11:15:16.928Z</time></trkpt><trkpt lat="39.52119783121917" lon="9.357620600076954"><ele>122.66666666666666</ele><time>2026-04-28T11:15:17.928Z</time></trkpt><trkpt lat="39.52111373255142" lon="9.357535809679021"><ele>122.5</ele><time>2026-04-28T11:15:19.928Z</time></trkpt><trkpt lat="39.52108311315858" lon="9.357401826101178"><ele>122.33333333333333</ele><time>2026-04-28T11:15:21.929Z</time></trkpt><trkpt lat="39.52106250681821" lon="9.35731538091533"><ele>122.16666666666666</ele><time>2026-04-28T11:15:22.929Z</time></trkpt><trkpt lat="39.52109266323136" lon="9.357234360368594"><ele>122.0</ele><time>2026-04-28T11:15:23.929Z</time></trkpt><trkpt lat="39.52112784990257" lon="9.35715699604699"><ele>121.99999999999999</ele><time>2026-04-28T11:15:24.929Z</time></trkpt><trkpt lat="39.52116508686997" lon="9.357087701917486"><ele>122.0</ele><time>2026-04-28T11:15:25.929Z</time></trkpt><trkpt lat="39.521201059776224" lon="9.35701697444447"><ele>121.99999999999999</ele><time>2026-04-28T11:15:26.929Z</time></trkpt><trkpt lat="39.52125917315163" lon="9.35696854886791"><ele>121.99999999999999</ele><time>2026-04-28T11:15:27.929Z</time></trkpt><trkpt lat="39.521325106140274" lon="9.356955105005106"><ele>122.0</ele><time>2026-04-28T11:15:28.929Z</time></trkpt><trkpt lat="39.521397189829614" lon="9.356931674072415"><ele>121.99999999999999</ele><time>2026-04-28T11:15:29.929Z</time></trkpt><trkpt lat="39.52146439564997" lon="9.356893951826876"><ele>121.99999999999999</ele><time>2026-04-28T11:15:30.929Z</time></trkpt><trkpt lat="39.52153508965282" lon="9.356882496035166"><ele>124.16666666666666</ele><time>2026-04-28T11:15:31.929Z</time></trkpt><trkpt lat="39.521606416949844" lon="9.35687525429414"><ele>126.33333333333333</ele><time>2026-04-28T11:15:32.929Z</time></trkpt><trkpt lat="39.52167984903786" lon="9.356867717724786"><ele>128.5</ele><time>2026-04-28T11:15:33.929Z</time></trkpt><trkpt lat="39.52175569506969" lon="9.356879076840979"><ele>130.66666666666666</ele><time>2026-04-28T11:15:34.929Z</time></trkpt><trkpt lat="39.52183181732555" lon="9.356877414723488"><ele>132.83333333333334</ele><time>2026-04-28T11:15:35.929Z</time></trkpt><trkpt lat="39.52191541457291" lon="9.3568816779368"><ele>135.0</ele><time>2026-04-28T11:15:36.929Z</time></trkpt><trkpt lat="39.5219984078747" lon="9.356890690288246"><ele>137.66666666666666</ele><time>2026-04-28T11:15:37.929Z</time></trkpt><trkpt lat="39.52207596817004" lon="9.356905863621886"><ele>140.33333333333334</ele><time>2026-04-28T11:15:38.929Z</time></trkpt><trkpt lat="39.522152905295385" lon="9.356934684045445"><ele>143.0</ele><time>2026-04-28T11:15:39.929Z</time></trkpt><trkpt lat="39.52223050037602" lon="9.35698578802777"><ele>145.66666666666669</ele><time>2026-04-28T11:15:40.929Z</time></trkpt><trkpt lat="39.522306083860904" lon="9.357032801699074"><ele>148.33333333333334</ele><time>2026-04-28T11:15:41.929Z</time></trkpt><trkpt lat="39.522367818071395" lon="9.357064710698682"><ele>151.0</ele><time>2026-04-28T11:15:42.929Z</time></trkpt><trkpt lat="39.52243797426594" lon="9.357080283366276"><ele>151.0</ele><time>2026-04-28T11:15:43.929Z</time></trkpt><trkpt lat="39.522511545061164" lon="9.357049582757954"><ele>151.0</ele><time>2026-04-28T11:15:44.929Z</time></trkpt><trkpt lat="39.522579400705986" lon="9.35702443552966"><ele>151.0</ele><time>2026-04-28T11:15:45.929Z</time></trkpt><trkpt lat="39.52265135607755" lon="9.35698681483469"><ele>151.0</ele><time>2026-04-28T11:15:46.929Z</time></trkpt><trkpt lat="39.52272697851639" lon="9.356942860052259"><ele>151.0</ele><time>2026-04-28T11:15:47.929Z</time></trkpt><trkpt lat="39.52280347863808" lon="9.356908676426858"><ele>151.0</ele><time>2026-04-28T11:15:48.929Z</time></trkpt><trkpt lat="39.52287727816062" lon="9.356923944578353"><ele>151.0</ele><time>2026-04-28T11:15:49.929Z</time></trkpt><trkpt lat="39.52295890320683" lon="9.356920307985922"><ele>151.0</ele><time>2026-04-28T11:15:50.929Z</time></trkpt><trkpt lat="39.523023223370494" lon="9.356914073615087"><ele>151.0</ele><time>2026-04-28T11:15:51.929Z</time></trkpt><trkpt lat="39.52310036593267" lon="9.356868960860886"><ele>151.0</ele><time>2026-04-28T11:15:53.929Z</time></trkpt><trkpt lat="39.5230742667878" lon="9.356767517824988"><ele>151.0</ele><time>2026-04-28T11:15:57.929Z</time></trkpt><trkpt lat="39.522968818945216" lon="9.356729000073667"><ele>151.0</ele><time>2026-04-28T11:15:59.929Z</time></trkpt><trkpt lat="39.52286187419" lon="9.356710516666219"><ele>151.0</ele><time>2026-04-28T11:16:01.929Z</time></trkpt><trkpt lat="39.522745169819046" lon="9.356671549010438"><ele>151.0</ele><time>2026-04-28T11:16:03.929Z</time></trkpt><trkpt lat="39.522692574009724" lon="9.356617280119867"><ele>151.0</ele><time>2026-04-28T11:16:04.929Z</time></trkpt><trkpt lat="39.522645117023" lon="9.356559029403092"><ele>151.0</ele><time>2026-04-28T11:16:05.93Z</time></trkpt><trkpt lat="39.522586485977435" lon="9.35650071115936"><ele>151.0</ele><time>2026-04-28T11:16:06.93Z</time></trkpt><trkpt lat="39.52252344956814" lon="9.356431872127121"><ele>151.0</ele><time>2026-04-28T11:16:07.93Z</time></trkpt><trkpt lat="39.5224700384525" lon="9.356363741683142"><ele>150.5</ele><time>2026-04-28T11:16:08.93Z</time></trkpt><trkpt lat="39.522404003498295" lon="9.356294880445887"><ele>150.0</ele><time>2026-04-28T11:16:09.93Z</time></trkpt><trkpt lat="39.52233653504661" lon="9.356230861747221"><ele>149.5</ele><time>2026-04-28T11:16:10.93Z</time></trkpt><trkpt lat="39.52225908718468" lon="9.35617155878688"><ele>149.0</ele><time>2026-04-28T11:16:11.93Z</time></trkpt><trkpt lat="39.522186477199426" lon="9.356114738361196"><ele>148.5</ele><time>2026-04-28T11:16:12.93Z</time></trkpt><trkpt lat="39.52211088321606" lon="9.356059281606836"><ele>148.0</ele><time>2026-04-28T11:16:13.93Z</time></trkpt><trkpt lat="39.52204453115059" lon="9.356002930824081"><ele>148.0</ele><time>2026-04-28T11:16:14.93Z</time></trkpt><trkpt lat="39.52197783637796" lon="9.355940606696832"><ele>148.0</ele><time>2026-04-28T11:16:15.93Z</time></trkpt><trkpt lat="39.52192135654004" lon="9.355868620835613"><ele>148.0</ele><time>2026-04-28T11:16:16.93Z</time></trkpt><trkpt lat="39.521876509159554" lon="9.355796643970908"><ele>148.0</ele><time>2026-04-28T11:16:17.93Z</time></trkpt><trkpt lat="39.52183650675201" lon="9.355667485254417"><ele>148.0</ele><time>2026-04-28T11:16:19.93Z</time></trkpt><trkpt lat="39.5218225028447" lon="9.355501566171327"><ele>149.28571428571428</ele><time>2026-04-28T11:16:21.93Z</time></trkpt><trkpt lat="39.521829975790816" lon="9.355406705520291"><ele>150.57142857142856</ele><time>2026-04-28T11:16:22.93Z</time></trkpt><trkpt lat="39.52184425451608" lon="9.355312237850429"><ele>151.85714285714283</ele><time>2026-04-28T11:16:23.93Z</time></trkpt><trkpt lat="39.521849637394496" lon="9.355213001538278"><ele>153.14285714285714</ele><time>2026-04-28T11:16:24.93Z</time></trkpt><trkpt lat="39.52185342770321" lon="9.355123726794032"><ele>154.42857142857142</ele><time>2026-04-28T11:16:25.93Z</time></trkpt><trkpt lat="39.52185834682656" lon="9.355034163051402"><ele>155.7142857142857</ele><time>2026-04-28T11:16:26.93Z</time></trkpt><trkpt lat="39.52187802258923" lon="9.35494685612194"><ele>157.0</ele><time>2026-04-28T11:16:27.93Z</time></trkpt><trkpt lat="39.52190642144479" lon="9.354864841302364"><ele>157.0</ele><time>2026-04-28T11:16:28.93Z</time></trkpt><trkpt lat="39.521943623157064" lon="9.354783063424936"><ele>157.0</ele><time>2026-04-28T11:16:29.93Z</time></trkpt><trkpt lat="39.52199600099241" lon="9.354716031981503"><ele>157.0</ele><time>2026-04-28T11:16:30.93Z</time></trkpt><trkpt lat="39.522043467415806" lon="9.354652129144922"><ele>157.0</ele><time>2026-04-28T11:16:31.93Z</time></trkpt><trkpt lat="39.522084367640026" lon="9.354558662425452"><ele>157.0</ele><time>2026-04-28T11:16:32.93Z</time></trkpt><trkpt lat="39.522122723291346" lon="9.354456194663655"><ele>157.0</ele><time>2026-04-28T11:16:33.93Z</time></trkpt><trkpt lat="39.52214467903556" lon="9.354350384173914"><ele>163.33333333333334</ele><time>2026-04-28T11:16:34.93Z</time></trkpt><trkpt lat="39.52216437996049" lon="9.354240713172778"><ele>169.66666666666669</ele><time>2026-04-28T11:16:35.93Z</time></trkpt><trkpt lat="39.52218029259892" lon="9.354130076827424"><ele>176.0</ele><time>2026-04-28T11:16:36.93Z</time></trkpt><trkpt lat="39.522207153267345" lon="9.354021120258684"><ele>182.33333333333334</ele><time>2026-04-28T11:16:37.93Z</time></trkpt><trkpt lat="39.52223839194528" lon="9.353917431474148"><ele>188.66666666666666</ele><time>2026-04-28T11:16:38.93Z</time></trkpt><trkpt lat="39.52227544127597" lon="9.353840853907426"><ele>195.0</ele><time>2026-04-28T11:16:39.93Z</time></trkpt><trkpt lat="39.52229715823861" lon="9.353751234846692"><ele>195.0</ele><time>2026-04-28T11:16:40.93Z</time></trkpt><trkpt lat="39.52229939099469" lon="9.35364247470889"><ele>195.0</ele><time>2026-04-28T11:16:42.93Z</time></trkpt><trkpt lat="39.52223195241253" lon="9.353540784405716"><ele>195.0</ele><time>2026-04-28T11:16:44.928Z</time></trkpt><trkpt lat="39.52221418361345" lon="9.3534067354214"><ele>195.0</ele><time>2026-04-28T11:16:46.927Z</time></trkpt><trkpt lat="39.52225878199941" lon="9.35328177356886"><ele>195.0</ele><time>2026-04-28T11:16:48.927Z</time></trkpt><trkpt lat="39.522339567640884" lon="9.353192506188758"><ele>195.0</ele><time>2026-04-28T11:16:50.927Z</time></trkpt><trkpt lat="39.522388030567" lon="9.353138779116712"><ele>195.0</ele><time>2026-04-28T11:16:51.927Z</time></trkpt><trkpt lat="39.5224387395864" lon="9.353082743814072"><ele>195.0</ele><time>2026-04-28T11:16:52.927Z</time></trkpt><trkpt lat="39.52248388303755" lon="9.353024545995012"><ele>195.0</ele><time>2026-04-28T11:16:53.928Z</time></trkpt><trkpt lat="39.52258078666432" lon="9.352997730548644"><ele>195.0</ele><time>2026-04-28T11:16:55.927Z</time></trkpt><trkpt lat="39.52257792904655" lon="9.35309475861458"><ele>195.0</ele><time>2026-04-28T11:16:58.927Z</time></trkpt><trkpt lat="39.52251090996024" lon="9.35317392513732"><ele>195.0</ele><time>2026-04-28T11:17:00.927Z</time></trkpt><trkpt lat="39.52248023164235" lon="9.353314391426201"><ele>195.0</ele><time>2026-04-28T11:17:02.927Z</time></trkpt><trkpt lat="39.52251433945493" lon="9.353421637495925"><ele>195.0</ele><time>2026-04-28T11:17:04.927Z</time></trkpt><trkpt lat="39.52256949575676" lon="9.353474997028512"><ele>195.0</ele><time>2026-04-28T11:17:05.927Z</time></trkpt><trkpt lat="39.52262602305914" lon="9.353523763388273"><ele>195.0</ele><time>2026-04-28T11:17:06.927Z</time></trkpt><trkpt lat="39.52265383061216" lon="9.353657285537047"><ele>195.0</ele><time>2026-04-28T11:17:08.927Z</time></trkpt><trkpt lat="39.52261664199731" lon="9.353737590487556"><ele>195.0</ele><time>2026-04-28T11:17:09.927Z</time></trkpt><trkpt lat="39.52257101633045" lon="9.353826034036016"><ele>195.0</ele><time>2026-04-28T11:17:10.927Z</time></trkpt><trkpt lat="39.52250919519679" lon="9.35396437713341"><ele>195.0</ele><time>2026-04-28T11:17:12.927Z</time></trkpt><trkpt lat="39.522514518585844" lon="9.354053741799115"><ele>195.0</ele><time>2026-04-28T11:17:13.927Z</time></trkpt><trkpt lat="39.522530787001735" lon="9.354143556425958"><ele>195.0</ele><time>2026-04-28T11:17:14.927Z</time></trkpt><trkpt lat="39.522556480395934" lon="9.354243471488141"><ele>195.0</ele><time>2026-04-28T11:17:15.927Z</time></trkpt><trkpt lat="39.52259483965572" lon="9.354354115063574"><ele>194.83333333333334</ele><time>2026-04-28T11:17:16.927Z</time></trkpt><trkpt lat="39.52262850295449" lon="9.354475614692031"><ele>194.66666666666669</ele><time>2026-04-28T11:17:17.928Z</time></trkpt><trkpt lat="39.522658046920384" lon="9.354550072292172"><ele>194.5</ele><time>2026-04-28T11:17:18.928Z</time></trkpt><trkpt lat="39.52269036580025" lon="9.354631786649357"><ele>194.33333333333334</ele><time>2026-04-28T11:17:19.928Z</time></trkpt><trkpt lat="39.522728099867486" lon="9.354700373546144"><ele>194.16666666666669</ele><time>2026-04-28T11:17:20.928Z</time></trkpt><trkpt lat="39.52278207873199" lon="9.354785905003684"><ele>194.0</ele><time>2026-04-28T11:17:21.928Z</time></trkpt><trkpt lat="39.52284042786002" lon="9.354836515092222"><ele>197.16666666666669</ele><time>2026-04-28T11:17:22.928Z</time></trkpt><trkpt lat="39.52290914128188" lon="9.354905674927808"><ele>200.33333333333334</ele><time>2026-04-28T11:17:23.928Z</time></trkpt><trkpt lat="39.522960446075906" lon="9.354965317591128"><ele>203.5</ele><time>2026-04-28T11:17:24.928Z</time></trkpt><trkpt lat="39.52300997946349" lon="9.35502990464592"><ele>206.66666666666669</ele><time>2026-04-28T11:17:25.928Z</time></trkpt><trkpt lat="39.523121564355144" lon="9.35504594911375"><ele>209.83333333333334</ele><time>2026-04-28T11:17:27.928Z</time></trkpt><trkpt lat="39.52318834783979" lon="9.355019333201456"><ele>213.0</ele><time>2026-04-28T11:17:28.928Z</time></trkpt><trkpt lat="39.523280875206964" lon="9.354977993615842"><ele>213.0</ele><time>2026-04-28T11:17:29.928Z</time></trkpt><trkpt lat="39.52335244156635" lon="9.354948690767879"><ele>213.0</ele><time>2026-04-28T11:17:30.928Z</time></trkpt><trkpt lat="39.52343900633848" lon="9.35492149780117"><ele>213.0</ele><time>2026-04-28T11:17:31.928Z</time></trkpt><trkpt lat="39.52352078881177" lon="9.354910884519157"><ele>213.0</ele><time>2026-04-28T11:17:32.928Z</time></trkpt><trkpt lat="39.52359545610376" lon="9.354933225136511"><ele>213.0</ele><time>2026-04-28T11:17:33.928Z</time></trkpt><trkpt lat="39.52366741881255" lon="9.354992076103603"><ele>213.0</ele><time>2026-04-28T11:17:34.928Z</time></trkpt><trkpt lat="39.523746106562506" lon="9.355055901221252"><ele>216.83333333333334</ele><time>2026-04-28T11:17:35.928Z</time></trkpt><trkpt lat="39.52381936169206" lon="9.355117522960693"><ele>220.66666666666669</ele><time>2026-04-28T11:17:36.928Z</time></trkpt><trkpt lat="39.52389378249069" lon="9.355179456586459"><ele>224.5</ele><time>2026-04-28T11:17:37.928Z</time></trkpt><trkpt lat="39.52396731949445" lon="9.355234722238524"><ele>228.33333333333334</ele><time>2026-04-28T11:17:38.928Z</time></trkpt><trkpt lat="39.52404068357466" lon="9.35529723414252"><ele>232.16666666666669</ele><time>2026-04-28T11:17:39.928Z</time></trkpt><trkpt lat="39.524107182976145" lon="9.355359137146703"><ele>236.0</ele><time>2026-04-28T11:17:40.928Z</time></trkpt><trkpt lat="39.52418445895174" lon="9.355421265919954"><ele>236.00000000000003</ele><time>2026-04-28T11:17:41.928Z</time></trkpt><trkpt lat="39.524252791854835" lon="9.355489775655538"><ele>236.0</ele><time>2026-04-28T11:17:42.928Z</time></trkpt><trkpt lat="39.5243036669724" lon="9.3555681371082"><ele>236.0</ele><time>2026-04-28T11:17:43.928Z</time></trkpt><trkpt lat="39.524343546560466" lon="9.355658526069249"><ele>236.0</ele><time>2026-04-28T11:17:44.928Z</time></trkpt><trkpt lat="39.524371478134455" lon="9.355755617172223"><ele>236.00000000000003</ele><time>2026-04-28T11:17:45.928Z</time></trkpt><trkpt lat="39.52438529441669" lon="9.355862920644805"><ele>236.0</ele><time>2026-04-28T11:17:46.928Z</time></trkpt><trkpt lat="39.52439653480935" lon="9.355950720363012"><ele>233.00000000000003</ele><time>2026-04-28T11:17:47.928Z</time></trkpt><trkpt lat="39.52441629487876" lon="9.356043985859207"><ele>230.0</ele><time>2026-04-28T11:17:48.928Z</time></trkpt><trkpt lat="39.524446049030125" lon="9.356155190435421"><ele>227.0</ele><time>2026-04-28T11:17:49.928Z</time></trkpt><trkpt lat="39.52447621031437" lon="9.356237403311473"><ele>224.0</ele><time>2026-04-28T11:17:50.928Z</time></trkpt><trkpt lat="39.52452638480572" lon="9.356345371647413"><ele>221.00000000000003</ele><time>2026-04-28T11:17:52.928Z</time></trkpt><trkpt lat="39.524612013895066" lon="9.356398430520168"><ele>218.0</ele><time>2026-04-28T11:17:54.928Z</time></trkpt><trkpt lat="39.524711222943544" lon="9.356424167094122"><ele>218.0</ele><time>2026-04-28T11:17:56.928Z</time></trkpt><trkpt lat="39.52483333515426" lon="9.356426399348768"><ele>218.0</ele><time>2026-04-28T11:17:58.928Z</time></trkpt><trkpt lat="39.52489409623174" lon="9.356403699374127"><ele>218.0</ele><time>2026-04-28T11:17:59.928Z</time></trkpt><trkpt lat="39.5249864746843" lon="9.35630482784325"><ele>218.0</ele><time>2026-04-28T11:18:01.928Z</time></trkpt><trkpt lat="39.525044265558925" lon="9.356228889970222"><ele>218.0</ele><time>2026-04-28T11:18:02.929Z</time></trkpt><trkpt lat="39.52509302352674" lon="9.356150489047808"><ele>222.66666666666669</ele><time>2026-04-28T11:18:03.929Z</time></trkpt><trkpt lat="39.52514642301827" lon="9.35606378365264"><ele>227.33333333333334</ele><time>2026-04-28T11:18:04.929Z</time></trkpt><trkpt lat="39.52520837590166" lon="9.355981531540246"><ele>232.0</ele><time>2026-04-28T11:18:05.929Z</time></trkpt><trkpt lat="39.52528048557919" lon="9.355912452057662"><ele>236.66666666666669</ele><time>2026-04-28T11:18:06.929Z</time></trkpt><trkpt lat="39.52535697502669" lon="9.355846991699774"><ele>241.33333333333334</ele><time>2026-04-28T11:18:07.929Z</time></trkpt><trkpt lat="39.525432761622255" lon="9.355790288570923"><ele>246.0</ele><time>2026-04-28T11:18:08.929Z</time></trkpt><trkpt lat="39.5255124041032" lon="9.355750323111224"><ele>246.66666666666666</ele><time>2026-04-28T11:18:09.929Z</time></trkpt><trkpt lat="39.52559676037566" lon="9.355746438324188"><ele>247.33333333333331</ele><time>2026-04-28T11:18:10.929Z</time></trkpt><trkpt lat="39.5256778041841" lon="9.355738309767768"><ele>248.0</ele><time>2026-04-28T11:18:11.929Z</time></trkpt><trkpt lat="39.52575802122616" lon="9.355751143642665"><ele>248.66666666666666</ele><time>2026-04-28T11:18:12.929Z</time></trkpt><trkpt lat="39.525830219584066" lon="9.355783315225873"><ele>249.33333333333331</ele><time>2026-04-28T11:18:13.929Z</time></trkpt><trkpt lat="39.52589313225657" lon="9.355843583197402"><ele>250.0</ele><time>2026-04-28T11:18:14.929Z</time></trkpt><trkpt lat="39.525964746402046" lon="9.355918301057669"><ele>249.99999999999997</ele><time>2026-04-28T11:18:15.929Z</time></trkpt><trkpt lat="39.52601439395089" lon="9.356008895192666"><ele>250.0</ele><time>2026-04-28T11:18:16.929Z</time></trkpt><trkpt lat="39.52606384113913" lon="9.35610879669821"><ele>250.0</ele><time>2026-04-28T11:18:17.929Z</time></trkpt><trkpt lat="39.52610393565773" lon="9.356196420540536"><ele>250.0</ele><time>2026-04-28T11:18:18.929Z</time></trkpt><trkpt lat="39.526152880449395" lon="9.356272834681855"><ele>249.99999999999997</ele><time>2026-04-28T11:18:19.929Z</time></trkpt><trkpt lat="39.526208275544406" lon="9.356341153129732"><ele>250.0</ele><time>2026-04-28T11:18:20.929Z</time></trkpt><trkpt lat="39.526305573217265" lon="9.356400166629388"><ele>250.2</ele><time>2026-04-28T11:18:22.929Z</time></trkpt><trkpt lat="39.52642008518017" lon="9.356356449594388"><ele>250.4</ele><time>2026-04-28T11:18:24.929Z</time></trkpt><trkpt lat="39.52652029437342" lon="9.35625574778024"><ele>250.60000000000002</ele><time>2026-04-28T11:18:26.929Z</time></trkpt><trkpt lat="39.52656951277913" lon="9.356189598269205"><ele>250.8</ele><time>2026-04-28T11:18:27.929Z</time></trkpt><trkpt lat="39.52661936846663" lon="9.356080055719122"><ele>251.0</ele><time>2026-04-28T11:18:29.929Z</time></trkpt><trkpt lat="39.526645552499964" lon="9.355992974999367"><ele>250.99999999999997</ele><time>2026-04-28T11:18:31.929Z</time></trkpt><trkpt lat="39.526666500449366" lon="9.35591503281623"><ele>251.0</ele><time>2026-04-28T11:18:32.929Z</time></trkpt><trkpt lat="39.526700388135076" lon="9.355831365639466"><ele>250.99999999999997</ele><time>2026-04-28T11:18:33.929Z</time></trkpt><trkpt lat="39.52673786386763" lon="9.35573636925325"><ele>250.99999999999997</ele><time>2026-04-28T11:18:34.929Z</time></trkpt><trkpt lat="39.52676525123922" lon="9.355649063765282"><ele>251.0</ele><time>2026-04-28T11:18:35.929Z</time></trkpt><trkpt lat="39.52678492151248" lon="9.355548304677074"><ele>250.99999999999997</ele><time>2026-04-28T11:18:36.929Z</time></trkpt><trkpt lat="39.52680334333999" lon="9.355465221030626"><ele>250.99999999999997</ele><time>2026-04-28T11:18:37.929Z</time></trkpt><trkpt lat="39.526838564391745" lon="9.355330415280383"><ele>253.71428571428567</ele><time>2026-04-28T11:18:39.929Z</time></trkpt><trkpt lat="39.526865233068484" lon="9.355246790389721"><ele>256.42857142857144</ele><time>2026-04-28T11:18:40.929Z</time></trkpt><trkpt lat="39.52689153787212" lon="9.355167651432522"><ele>259.1428571428571</ele><time>2026-04-28T11:18:41.929Z</time></trkpt><trkpt lat="39.526924415591445" lon="9.355069644940048"><ele>261.85714285714283</ele><time>2026-04-28T11:18:42.929Z</time></trkpt><trkpt lat="39.52694929723963" lon="9.35498641365098"><ele>264.57142857142856</ele><time>2026-04-28T11:18:43.929Z</time></trkpt><trkpt lat="39.52698239198942" lon="9.354907275262974"><ele>267.2857142857143</ele><time>2026-04-28T11:18:44.929Z</time></trkpt><trkpt lat="39.52700288565735" lon="9.354815900026171"><ele>270.0</ele><time>2026-04-28T11:18:45.929Z</time></trkpt><trkpt lat="39.527005347644355" lon="9.354711323500059"><ele>272.3333333333333</ele><time>2026-04-28T11:18:46.929Z</time></trkpt><trkpt lat="39.526988323030814" lon="9.35460810600593"><ele>274.6666666666667</ele><time>2026-04-28T11:18:47.929Z</time></trkpt><trkpt lat="39.5269783524089" lon="9.354508892919197"><ele>277.0</ele><time>2026-04-28T11:18:48.93Z</time></trkpt><trkpt lat="39.526973365113896" lon="9.354419793414223"><ele>279.33333333333337</ele><time>2026-04-28T11:18:49.93Z</time></trkpt><trkpt lat="39.52695958799173" lon="9.354248987197977"><ele>281.6666666666667</ele><time>2026-04-28T11:18:51.927Z</time></trkpt><trkpt lat="39.52695964773879" lon="9.35414510248915"><ele>284.0</ele><time>2026-04-28T11:18:52.927Z</time></trkpt><trkpt lat="39.52698215477734" lon="9.354055327785"><ele>284.0</ele><time>2026-04-28T11:18:53.927Z</time></trkpt><trkpt lat="39.527004990156385" lon="9.353968541064111"><ele>284.0</ele><time>2026-04-28T11:18:54.927Z</time></trkpt><trkpt lat="39.52702452155357" lon="9.353868744661431"><ele>284.0</ele><time>2026-04-28T11:18:55.927Z</time></trkpt><trkpt lat="39.52705263684754" lon="9.353762640845671"><ele>284.0</ele><time>2026-04-28T11:18:56.927Z</time></trkpt><trkpt lat="39.52709294953558" lon="9.353581464054905"><ele>284.0</ele><time>2026-04-28T11:18:58.927Z</time></trkpt><trkpt lat="39.52712456315493" lon="9.353470833183938"><ele>282.83333333333337</ele><time>2026-04-28T11:18:59.927Z</time></trkpt><trkpt lat="39.52716728240813" lon="9.353357284398516"><ele>281.6666666666667</ele><time>2026-04-28T11:19:00.927Z</time></trkpt><trkpt lat="39.52720689656188" lon="9.353261297341065"><ele>280.5</ele><time>2026-04-28T11:19:01.927Z</time></trkpt><trkpt lat="39.52724684275705" lon="9.353159582126949"><ele>279.3333333333333</ele><time>2026-04-28T11:19:02.927Z</time></trkpt><trkpt lat="39.527285176155765" lon="9.353067905013981"><ele>278.16666666666663</ele><time>2026-04-28T11:19:03.926Z</time></trkpt><trkpt lat="39.52736023072783" lon="9.35299982071507"><ele>277.0</ele><time>2026-04-28T11:19:05.926Z</time></trkpt><trkpt lat="39.52746731708518" lon="9.353021873817262"><ele>277.0</ele><time>2026-04-28T11:19:07.927Z</time></trkpt><trkpt lat="39.52752361976755" lon="9.3530799534319"><ele>277.0</ele><time>2026-04-28T11:19:08.927Z</time></trkpt><trkpt lat="39.52760019504739" lon="9.353144767697954"><ele>277.0</ele><time>2026-04-28T11:19:09.927Z</time></trkpt><trkpt lat="39.52767482933309" lon="9.353211417690009"><ele>277.0</ele><time>2026-04-28T11:19:10.927Z</time></trkpt><trkpt lat="39.527747102266275" lon="9.35327701663535"><ele>277.0</ele><time>2026-04-28T11:19:11.927Z</time></trkpt><trkpt lat="39.527809099066616" lon="9.353343222207197"><ele>277.0</ele><time>2026-04-28T11:19:12.927Z</time></trkpt><trkpt lat="39.52786623731703" lon="9.353404511801836"><ele>278.6</ele><time>2026-04-28T11:19:13.927Z</time></trkpt><trkpt lat="39.527928112430594" lon="9.353446241133271"><ele>280.2</ele><time>2026-04-28T11:19:14.927Z</time></trkpt><trkpt lat="39.52805141588479" lon="9.353442526771499"><ele>281.8</ele><time>2026-04-28T11:19:16.927Z</time></trkpt><trkpt lat="39.52817035299796" lon="9.353353378301458"><ele>283.4</ele><time>2026-04-28T11:19:18.927Z</time></trkpt><trkpt lat="39.528240403511" lon="9.353287784914226"><ele>285.0</ele><time>2026-04-28T11:19:19.927Z</time></trkpt><trkpt lat="39.52829492860488" lon="9.353224466248163"><ele>285.0</ele><time>2026-04-28T11:19:20.927Z</time></trkpt><trkpt lat="39.528346593826726" lon="9.353151040715526"><ele>285.0</ele><time>2026-04-28T11:19:21.927Z</time></trkpt><trkpt lat="39.528398037433604" lon="9.353086429213944"><ele>285.0</ele><time>2026-04-28T11:19:22.927Z</time></trkpt><trkpt lat="39.528467116717735" lon="9.353037647476555"><ele>285.0</ele><time>2026-04-28T11:19:23.927Z</time></trkpt><trkpt lat="39.528534162807965" lon="9.353030271587752"><ele>285.0</ele><time>2026-04-28T11:19:24.927Z</time></trkpt><trkpt lat="39.52861883234377" lon="9.353032156313551"><ele>285.0</ele><time>2026-04-28T11:19:25.927Z</time></trkpt><trkpt lat="39.528695302554404" lon="9.353054252005796"><ele>283.6666666666667</ele><time>2026-04-28T11:19:26.927Z</time></trkpt><trkpt lat="39.52877682438742" lon="9.353069077501727"><ele>282.3333333333333</ele><time>2026-04-28T11:19:27.927Z</time></trkpt><trkpt lat="39.52886433206616" lon="9.353078742723644"><ele>281.0</ele><time>2026-04-28T11:19:28.927Z</time></trkpt><trkpt lat="39.52895263586192" lon="9.353074313288374"><ele>279.66666666666663</ele><time>2026-04-28T11:19:29.927Z</time></trkpt><trkpt lat="39.52903329749187" lon="9.353078626379721"><ele>278.3333333333333</ele><time>2026-04-28T11:19:30.927Z</time></trkpt><trkpt lat="39.52909881655442" lon="9.353071578648018"><ele>277.0</ele><time>2026-04-28T11:19:31.927Z</time></trkpt><trkpt lat="39.52915616006795" lon="9.353018016811934"><ele>280.16666666666663</ele><time>2026-04-28T11:19:33.927Z</time></trkpt><trkpt lat="39.52913252613117" lon="9.352920182905068"><ele>283.3333333333333</ele><time>2026-04-28T11:19:35.927Z</time></trkpt><trkpt lat="39.52904670531255" lon="9.352924691042075"><ele>286.5</ele><time>2026-04-28T11:19:37.927Z</time></trkpt><trkpt lat="39.528982763353845" lon="9.352934503268639"><ele>289.6666666666667</ele><time>2026-04-28T11:19:38.927Z</time></trkpt><trkpt lat="39.528911858863744" lon="9.352935032407528"><ele>292.83333333333337</ele><time>2026-04-28T11:19:39.927Z</time></trkpt><trkpt lat="39.52877525727371" lon="9.35287738997873"><ele>296.0</ele><time>2026-04-28T11:19:41.927Z</time></trkpt><trkpt lat="39.528692554944655" lon="9.35284061503551"><ele>298.83333333333337</ele><time>2026-04-28T11:19:42.927Z</time></trkpt><trkpt lat="39.52861572269532" lon="9.352800414311377"><ele>301.6666666666667</ele><time>2026-04-28T11:19:43.927Z</time></trkpt><trkpt lat="39.52853214454491" lon="9.352762508534004"><ele>304.5</ele><time>2026-04-28T11:19:44.927Z</time></trkpt><trkpt lat="39.52844568228414" lon="9.352739608504498"><ele>307.3333333333333</ele><time>2026-04-28T11:19:45.927Z</time></trkpt><trkpt lat="39.52837064731583" lon="9.35273829309756"><ele>310.16666666666663</ele><time>2026-04-28T11:19:46.927Z</time></trkpt><trkpt lat="39.5282991358681" lon="9.352760852312493"><ele>313.0</ele><time>2026-04-28T11:19:47.927Z</time></trkpt><trkpt lat="39.52822587239059" lon="9.35279708422841"><ele>313.0</ele><time>2026-04-28T11:19:48.927Z</time></trkpt><trkpt lat="39.52815374293932" lon="9.352840692939655"><ele>313.0</ele><time>2026-04-28T11:19:49.927Z</time></trkpt><trkpt lat="39.52807963872066" lon="9.352855568741145"><ele>313.0</ele><time>2026-04-28T11:19:50.927Z</time></trkpt><trkpt lat="39.52801071839896" lon="9.352843356788773"><ele>313.0</ele><time>2026-04-28T11:19:51.927Z</time></trkpt><trkpt lat="39.52794685210245" lon="9.352803747913093"><ele>313.0</ele><time>2026-04-28T11:19:52.927Z</time></trkpt><trkpt lat="39.52789496326056" lon="9.352738383203794"><ele>313.0</ele><time>2026-04-28T11:19:53.928Z</time></trkpt><trkpt lat="39.52784305329379" lon="9.35265354404653"><ele>311.8333333333333</ele><time>2026-04-28T11:19:54.928Z</time></trkpt><trkpt lat="39.52779226856175" lon="9.352568910964564"><ele>310.66666666666663</ele><time>2026-04-28T11:19:55.928Z</time></trkpt><trkpt lat="39.52773082107934" lon="9.35248172329152"><ele>309.5</ele><time>2026-04-28T11:19:56.928Z</time></trkpt><trkpt lat="39.52767004543395" lon="9.352383523241242"><ele>308.3333333333333</ele><time>2026-04-28T11:19:57.928Z</time></trkpt><trkpt lat="39.52761875645674" lon="9.352282020896084"><ele>307.1666666666667</ele><time>2026-04-28T11:19:58.928Z</time></trkpt><trkpt lat="39.527569325110676" lon="9.352195250266622"><ele>306.0</ele><time>2026-04-28T11:19:59.928Z</time></trkpt><trkpt lat="39.52752272290797" lon="9.352130584833262"><ele>310.3333333333333</ele><time>2026-04-28T11:20:00.928Z</time></trkpt><trkpt lat="39.52745311536387" lon="9.352081278884294"><ele>314.6666666666667</ele><time>2026-04-28T11:20:01.928Z</time></trkpt><trkpt lat="39.52738093925145" lon="9.35205190624452"><ele>319.0</ele><time>2026-04-28T11:20:02.928Z</time></trkpt><trkpt lat="39.527297935916934" lon="9.352020969570525"><ele>323.33333333333337</ele><time>2026-04-28T11:20:03.928Z</time></trkpt><trkpt lat="39.52722018695466" lon="9.352007058955397"><ele>327.6666666666667</ele><time>2026-04-28T11:20:04.928Z</time></trkpt><trkpt lat="39.527151649299746" lon="9.352011998629756"><ele>332.0</ele><time>2026-04-28T11:20:05.928Z</time></trkpt><trkpt lat="39.52702755454899" lon="9.352094453809944"><ele>332.0</ele><time>2026-04-28T11:20:07.928Z</time></trkpt><trkpt lat="39.52696610625948" lon="9.352167632537665"><ele>332.0</ele><time>2026-04-28T11:20:08.928Z</time></trkpt><trkpt lat="39.5268894526031" lon="9.352241039077914"><ele>332.0</ele><time>2026-04-28T11:20:09.928Z</time></trkpt><trkpt lat="39.52681718062157" lon="9.352331107480405"><ele>332.0</ele><time>2026-04-28T11:20:10.928Z</time></trkpt><trkpt lat="39.52674634800593" lon="9.352430402545771"><ele>332.0</ele><time>2026-04-28T11:20:11.928Z</time></trkpt><trkpt lat="39.52667691817904" lon="9.352517577721471"><ele>329.0</ele><time>2026-04-28T11:20:12.928Z</time></trkpt><trkpt lat="39.52659590687966" lon="9.35259939967586"><ele>326.0</ele><time>2026-04-28T11:20:13.928Z</time></trkpt><trkpt lat="39.52651177424447" lon="9.352675623278497"><ele>323.0</ele><time>2026-04-28T11:20:14.928Z</time></trkpt><trkpt lat="39.526430621111615" lon="9.352750141099778"><ele>320.0</ele><time>2026-04-28T11:20:15.928Z</time></trkpt><trkpt lat="39.52636747576164" lon="9.352816907352699"><ele>317.0</ele><time>2026-04-28T11:20:16.928Z</time></trkpt><trkpt lat="39.52630846221271" lon="9.35290739872968"><ele>317.0</ele><time>2026-04-28T11:20:17.928Z</time></trkpt><trkpt lat="39.52625586592337" lon="9.353010561372823"><ele>317.0</ele><time>2026-04-28T11:20:18.928Z</time></trkpt><trkpt lat="39.5262024611527" lon="9.353121957757828"><ele>317.0</ele><time>2026-04-28T11:20:19.928Z</time></trkpt><trkpt lat="39.526145905317605" lon="9.353223909378158"><ele>317.0</ele><time>2026-04-28T11:20:20.928Z</time></trkpt><trkpt lat="39.526085890174016" lon="9.353273882691967"><ele>317.0</ele><time>2026-04-28T11:20:21.928Z</time></trkpt><trkpt lat="39.52600738787815" lon="9.353315181043373"><ele>317.0</ele><time>2026-04-28T11:20:23.928Z</time></trkpt><trkpt lat="39.5259120426672" lon="9.353229032473177"><ele>316.6</ele><time>2026-04-28T11:20:25.928Z</time></trkpt><trkpt lat="39.52588325868787" lon="9.353155262978873"><ele>316.2</ele><time>2026-04-28T11:20:26.928Z</time></trkpt><trkpt lat="39.5258597329183" lon="9.35305033544507"><ele>315.8</ele><time>2026-04-28T11:20:27.928Z</time></trkpt><trkpt lat="39.52583432917018" lon="9.352919961714676"><ele>315.4</ele><time>2026-04-28T11:20:28.928Z</time></trkpt><trkpt lat="39.52580430873415" lon="9.352784740011412"><ele>315.0</ele><time>2026-04-28T11:20:29.928Z</time></trkpt><trkpt lat="39.52578307526531" lon="9.352652197461595"><ele>315.0</ele><time>2026-04-28T11:20:30.928Z</time></trkpt><trkpt lat="39.52574668003202" lon="9.352514661963168"><ele>315.0</ele><time>2026-04-28T11:20:31.928Z</time></trkpt><trkpt lat="39.525720292247755" lon="9.352378526858187"><ele>315.0</ele><time>2026-04-28T11:20:32.928Z</time></trkpt><trkpt lat="39.525699246723" lon="9.352225049871082"><ele>315.0</ele><time>2026-04-28T11:20:33.928Z</time></trkpt><trkpt lat="39.52568041034612" lon="9.35208318397342"><ele>315.6666666666667</ele><time>2026-04-28T11:20:34.928Z</time></trkpt><trkpt lat="39.525665842023926" lon="9.351941575014326"><ele>316.3333333333333</ele><time>2026-04-28T11:20:35.928Z</time></trkpt><trkpt lat="39.52564779307295" lon="9.351820155259091"><ele>317.0</ele><time>2026-04-28T11:20:36.928Z</time></trkpt><trkpt lat="39.52563950489382" lon="9.351725539676995"><ele>317.66666666666663</ele><time>2026-04-28T11:20:37.928Z</time></trkpt><trkpt lat="39.525643257121814" lon="9.351638172245332"><ele>318.3333333333333</ele><time>2026-04-28T11:20:38.929Z</time></trkpt><trkpt lat="39.5256578080862" lon="9.351542098451075"><ele>319.0</ele><time>2026-04-28T11:20:39.929Z</time></trkpt><trkpt lat="39.525687047257264" lon="9.351433535952873"><ele>320.79999999999995</ele><time>2026-04-28T11:20:40.929Z</time></trkpt><trkpt lat="39.52568655346252" lon="9.351339947937356"><ele>322.59999999999997</ele><time>2026-04-28T11:20:41.929Z</time></trkpt><trkpt lat="39.525654207966674" lon="9.351206171238143"><ele>324.4</ele><time>2026-04-28T11:20:43.929Z</time></trkpt><trkpt lat="39.52558840323368" lon="9.351092750655258"><ele>326.2</ele><time>2026-04-28T11:20:45.929Z</time></trkpt><trkpt lat="39.52550238223106" lon="9.350977504188304"><ele>328.0</ele><time>2026-04-28T11:20:47.929Z</time></trkpt><trkpt lat="39.525459466737814" lon="9.350826303956431"><ele>327.99999999999994</ele><time>2026-04-28T11:20:49.929Z</time></trkpt><trkpt lat="39.52544639953733" lon="9.35074130210919"><ele>328.0</ele><time>2026-04-28T11:20:50.929Z</time></trkpt><trkpt lat="39.525433375532984" lon="9.35065335244615"><ele>328.0</ele><time>2026-04-28T11:20:51.929Z</time></trkpt><trkpt lat="39.525422037924415" lon="9.350566228519831"><ele>328.0</ele><time>2026-04-28T11:20:52.929Z</time></trkpt><trkpt lat="39.52541384330283" lon="9.35047779848801"><ele>328.0</ele><time>2026-04-28T11:20:53.929Z</time></trkpt><trkpt lat="39.525415425503006" lon="9.35039566931353"><ele>327.99999999999994</ele><time>2026-04-28T11:20:54.929Z</time></trkpt><trkpt lat="39.52542352091881" lon="9.35031206292648"><ele>328.0</ele><time>2026-04-28T11:20:55.929Z</time></trkpt><trkpt lat="39.52542329637947" lon="9.350219950751807"><ele>329.16666666666663</ele><time>2026-04-28T11:20:56.927Z</time></trkpt><trkpt lat="39.52542045688124" lon="9.3501275291605"><ele>330.3333333333333</ele><time>2026-04-28T11:20:57.926Z</time></trkpt><trkpt lat="39.525413148418195" lon="9.350041702704498"><ele>331.5</ele><time>2026-04-28T11:20:58.926Z</time></trkpt><trkpt lat="39.5254063237649" lon="9.349908256913471"><ele>332.6666666666667</ele><time>2026-04-28T11:21:00.927Z</time></trkpt><trkpt lat="39.52536315147019" lon="9.349842238878528"><ele>333.83333333333337</ele><time>2026-04-28T11:21:22.926Z</time></trkpt><trkpt lat="39.52533515205605" lon="9.349732507280569"><ele>335.0</ele><time>2026-04-28T11:21:26.927Z</time></trkpt><trkpt lat="39.52532901144707" lon="9.349644056012444"><ele>336.0</ele><time>2026-04-28T11:21:28.927Z</time></trkpt><trkpt lat="39.5253663326555" lon="9.349737864358412"><ele>337.0</ele><time>2026-04-28T11:23:00.929Z</time></trkpt><trkpt lat="39.525398662526506" lon="9.349859638983954"><ele>338.0</ele><time>2026-04-28T11:23:02.927Z</time></trkpt><trkpt lat="39.52556687532113" lon="9.349882248790195"><ele>339.0</ele><time>2026-04-28T11:23:03.926Z</time></trkpt><trkpt lat="39.525619930069226" lon="9.349952131815149"><ele>340.0</ele><time>2026-04-28T11:23:04.926Z</time></trkpt><trkpt lat="39.525704969630425" lon="9.350062381210037"><ele>340.0</ele><time>2026-04-28T11:23:05.927Z</time></trkpt><trkpt lat="39.52579327991251" lon="9.35014163854662"><ele>340.0</ele><time>2026-04-28T11:23:06.927Z</time></trkpt><trkpt lat="39.52586224929607" lon="9.350236520493675"><ele>340.0</ele><time>2026-04-28T11:23:07.927Z</time></trkpt><trkpt lat="39.52593872318785" lon="9.350326913426303"><ele>340.0</ele><time>2026-04-28T11:23:08.927Z</time></trkpt><trkpt lat="39.52601963405693" lon="9.350418940968764"><ele>340.0</ele><time>2026-04-28T11:23:09.927Z</time></trkpt><trkpt lat="39.52610668715781" lon="9.350509979081906"><ele>341.0</ele><time>2026-04-28T11:23:10.927Z</time></trkpt><trkpt lat="39.52619088904139" lon="9.350605230373032"><ele>342.0</ele><time>2026-04-28T11:23:11.927Z</time></trkpt><trkpt lat="39.526269253977965" lon="9.350702052480043"><ele>343.0</ele><time>2026-04-28T11:23:12.927Z</time></trkpt><trkpt lat="39.52633796575485" lon="9.350794854627374"><ele>344.0</ele><time>2026-04-28T11:23:13.927Z</time></trkpt><trkpt lat="39.526399970726956" lon="9.35087041281424"><ele>345.0</ele><time>2026-04-28T11:23:14.927Z</time></trkpt><trkpt lat="39.52646016222582" lon="9.350929532352461"><ele>345.0</ele><time>2026-04-28T11:23:15.927Z</time></trkpt><trkpt lat="39.52656376442821" lon="9.350994649302475"><ele>345.0</ele><time>2026-04-28T11:23:17.927Z</time></trkpt><trkpt lat="39.52662831484524" lon="9.351000785595415"><ele>345.0</ele><time>2026-04-28T11:23:18.927Z</time></trkpt><trkpt lat="39.52669975497096" lon="9.350980380084634"><ele>345.0</ele><time>2026-04-28T11:23:19.927Z</time></trkpt><trkpt lat="39.52676862444967" lon="9.350937559843047"><ele>345.0</ele><time>2026-04-28T11:23:20.927Z</time></trkpt><trkpt lat="39.52683284771057" lon="9.350895096401258"><ele>345.0</ele><time>2026-04-28T11:23:21.927Z</time></trkpt><trkpt lat="39.52691806378328" lon="9.35083519052651"><ele>345.0</ele><time>2026-04-28T11:23:22.926Z</time></trkpt><trkpt lat="39.52700072719796" lon="9.350771467565668"><ele>345.0</ele><time>2026-04-28T11:23:23.924Z</time></trkpt><trkpt lat="39.527075489612436" lon="9.350689528428692"><ele>345.0</ele><time>2026-04-28T11:23:24.923Z</time></trkpt><trkpt lat="39.52716005119825" lon="9.350642404558846"><ele>345.0</ele><time>2026-04-28T11:23:25.921Z</time></trkpt><trkpt lat="39.52724340406244" lon="9.350619332925104"><ele>345.0</ele><time>2026-04-28T11:23:26.92Z</time></trkpt><trkpt lat="39.52732582108915" lon="9.35060740834137"><ele>346.8333333333333</ele><time>2026-04-28T11:23:27.919Z</time></trkpt><trkpt lat="39.52739554288071" lon="9.350610419812924"><ele>348.6666666666667</ele><time>2026-04-28T11:23:28.918Z</time></trkpt><trkpt lat="39.527513779633814" lon="9.350676150865064"><ele>350.5</ele><time>2026-04-28T11:23:30.916Z</time></trkpt><trkpt lat="39.5275748247705" lon="9.350731502690724"><ele>352.33333333333337</ele><time>2026-04-28T11:23:31.915Z</time></trkpt><trkpt lat="39.52763848771656" lon="9.35077859617813"><ele>354.1666666666667</ele><time>2026-04-28T11:23:32.914Z</time></trkpt><trkpt lat="39.52771015497996" lon="9.35082935028365"><ele>356.0</ele><time>2026-04-28T11:23:33.913Z</time></trkpt><trkpt lat="39.527781432799294" lon="9.350866782611805"><ele>356.0</ele><time>2026-04-28T11:23:34.913Z</time></trkpt><trkpt lat="39.527850701969875" lon="9.350917679286486"><ele>356.0</ele><time>2026-04-28T11:23:35.912Z</time></trkpt><trkpt lat="39.52792319671218" lon="9.350927866128691"><ele>356.0</ele><time>2026-04-28T11:23:36.911Z</time></trkpt><trkpt lat="39.52798074701833" lon="9.350867792343253"><ele>356.0</ele><time>2026-04-28T11:23:37.911Z</time></trkpt><trkpt lat="39.52803490069394" lon="9.350808755396825"><ele>356.0</ele><time>2026-04-28T11:23:38.91Z</time></trkpt><trkpt lat="39.52809431950018" lon="9.350730872542336"><ele>356.0</ele><time>2026-04-28T11:23:39.91Z</time></trkpt><trkpt lat="39.52816934407676" lon="9.35065786528545"><ele>356.6</ele><time>2026-04-28T11:23:40.909Z</time></trkpt><trkpt lat="39.528242041651936" lon="9.350581283581226"><ele>357.20000000000005</ele><time>2026-04-28T11:23:41.909Z</time></trkpt><trkpt lat="39.52831605251922" lon="9.350501316366255"><ele>357.79999999999995</ele><time>2026-04-28T11:23:42.908Z</time></trkpt><trkpt lat="39.528387934375544" lon="9.350417640190798"><ele>358.4</ele><time>2026-04-28T11:23:43.908Z</time></trkpt><trkpt lat="39.528452183511625" lon="9.350343597930486"><ele>359.0</ele><time>2026-04-28T11:23:44.908Z</time></trkpt><trkpt lat="39.52852212654691" lon="9.35025542199479"><ele>359.4</ele><time>2026-04-28T11:23:45.907Z</time></trkpt><trkpt lat="39.52860273348937" lon="9.350166191706094"><ele>359.79999999999995</ele><time>2026-04-28T11:23:46.907Z</time></trkpt><trkpt lat="39.5286690597917" lon="9.350079453907352"><ele>360.20000000000005</ele><time>2026-04-28T11:23:47.907Z</time></trkpt><trkpt lat="39.52873165565439" lon="9.349990677533558"><ele>360.6</ele><time>2026-04-28T11:23:48.906Z</time></trkpt><trkpt lat="39.528805860776366" lon="9.349909024751392"><ele>361.0</ele><time>2026-04-28T11:23:49.906Z</time></trkpt><trkpt lat="39.52885029295986" lon="9.34983090999056"><ele>361.0</ele><time>2026-04-28T11:23:50.906Z</time></trkpt><trkpt lat="39.52888065408363" lon="9.349750928843218"><ele>361.0</ele><time>2026-04-28T11:23:51.906Z</time></trkpt><trkpt lat="39.5289223369134" lon="9.349636259276819"><ele>361.0</ele><time>2026-04-28T11:23:53.905Z</time></trkpt><trkpt lat="39.52892022558257" lon="9.349540265568024"><ele>361.0</ele><time>2026-04-28T11:23:54.905Z</time></trkpt><trkpt lat="39.52889067962091" lon="9.349426283152546"><ele>361.0</ele><time>2026-04-28T11:23:56.905Z</time></trkpt><trkpt lat="39.52888917339678" lon="9.349312998359594"><ele>361.0</ele><time>2026-04-28T11:23:58.904Z</time></trkpt><trkpt lat="39.52891556867879" lon="9.349193516789052"><ele>360.5</ele><time>2026-04-28T11:24:00.904Z</time></trkpt><trkpt lat="39.52892007766006" lon="9.349103160665729"><ele>360.0</ele><time>2026-04-28T11:24:01.904Z</time></trkpt><trkpt lat="39.528937000909615" lon="9.348995803429252"><ele>359.5</ele><time>2026-04-28T11:24:02.904Z</time></trkpt><trkpt lat="39.52895727436192" lon="9.348891510896795"><ele>359.0</ele><time>2026-04-28T11:24:03.904Z</time></trkpt><trkpt lat="39.52898184151548" lon="9.348792746649341"><ele>358.5</ele><time>2026-04-28T11:24:04.904Z</time></trkpt><trkpt lat="39.52902046021704" lon="9.34870817725967"><ele>358.0</ele><time>2026-04-28T11:24:05.904Z</time></trkpt><trkpt lat="39.52904020522257" lon="9.348622430691263"><ele>356.3333333333333</ele><time>2026-04-28T11:24:06.903Z</time></trkpt><trkpt lat="39.529053645897434" lon="9.348531565538792"><ele>354.66666666666663</ele><time>2026-04-28T11:24:07.903Z</time></trkpt><trkpt lat="39.529062330578604" lon="9.34844591464041"><ele>353.0</ele><time>2026-04-28T11:24:08.903Z</time></trkpt><trkpt lat="39.529080466607724" lon="9.3483676476923"><ele>351.3333333333333</ele><time>2026-04-28T11:24:09.903Z</time></trkpt><trkpt lat="39.52911735787079" lon="9.348279844213442"><ele>349.6666666666667</ele><time>2026-04-28T11:24:10.903Z</time></trkpt><trkpt lat="39.52916829670815" lon="9.34818417713736"><ele>348.0</ele><time>2026-04-28T11:24:11.903Z</time></trkpt><trkpt lat="39.52922379462591" lon="9.348085098066797"><ele>347.59999999999997</ele><time>2026-04-28T11:24:12.903Z</time></trkpt><trkpt lat="39.52926949513617" lon="9.347973490476486"><ele>347.2</ele><time>2026-04-28T11:24:13.903Z</time></trkpt><trkpt lat="39.52930758685842" lon="9.347851593959138"><ele>346.8</ele><time>2026-04-28T11:24:14.903Z</time></trkpt><trkpt lat="39.52933487409243" lon="9.347722921903848"><ele>346.4</ele><time>2026-04-28T11:24:15.903Z</time></trkpt><trkpt lat="39.529360046728634" lon="9.347599035822816"><ele>346.0</ele><time>2026-04-28T11:24:16.903Z</time></trkpt><trkpt lat="39.52937995917372" lon="9.347474989982839"><ele>346.0</ele><time>2026-04-28T11:24:17.903Z</time></trkpt><trkpt lat="39.52939091591216" lon="9.347355635885103"><ele>346.0</ele><time>2026-04-28T11:24:18.903Z</time></trkpt><trkpt lat="39.52940067540232" lon="9.347244491150688"><ele>346.0</ele><time>2026-04-28T11:24:19.903Z</time></trkpt><trkpt lat="39.52940101675522" lon="9.347135721027914"><ele>346.0</ele><time>2026-04-28T11:24:20.903Z</time></trkpt><trkpt lat="39.529398852020556" lon="9.347034848572333"><ele>346.0</ele><time>2026-04-28T11:24:21.903Z</time></trkpt><trkpt lat="39.52939168668869" lon="9.346934155232779"><ele>346.0</ele><time>2026-04-28T11:24:22.903Z</time></trkpt><trkpt lat="39.52937864591752" lon="9.346837310524814"><ele>343.8333333333333</ele><time>2026-04-28T11:24:23.903Z</time></trkpt><trkpt lat="39.52936464429064" lon="9.346741048144823"><ele>341.66666666666663</ele><time>2026-04-28T11:24:24.903Z</time></trkpt><trkpt lat="39.529346829216806" lon="9.34665413638882"><ele>339.5</ele><time>2026-04-28T11:24:25.903Z</time></trkpt><trkpt lat="39.52932243921729" lon="9.346576507207134"><ele>337.3333333333333</ele><time>2026-04-28T11:24:26.903Z</time></trkpt><trkpt lat="39.529256066048625" lon="9.346431052181153"><ele>335.1666666666667</ele><time>2026-04-28T11:24:28.903Z</time></trkpt><trkpt lat="39.52920635599754" lon="9.346351356784556"><ele>333.0</ele><time>2026-04-28T11:24:29.903Z</time></trkpt><trkpt lat="39.529154376915606" lon="9.34627952392298"><ele>329.8333333333333</ele><time>2026-04-28T11:24:30.903Z</time></trkpt><trkpt lat="39.52909728794131" lon="9.346204431529875"><ele>326.6666666666667</ele><time>2026-04-28T11:24:31.903Z</time></trkpt><trkpt lat="39.52905931570375" lon="9.346107737304342"><ele>323.5</ele><time>2026-04-28T11:24:32.903Z</time></trkpt><trkpt lat="39.52901694851008" lon="9.346032794028341"><ele>320.33333333333337</ele><time>2026-04-28T11:24:33.903Z</time></trkpt><trkpt lat="39.52896803309436" lon="9.345980298921509"><ele>317.1666666666667</ele><time>2026-04-28T11:24:34.903Z</time></trkpt><trkpt lat="39.528899846608475" lon="9.345842653208607"><ele>314.0</ele><time>2026-04-28T11:24:36.903Z</time></trkpt><trkpt lat="39.528856939875276" lon="9.345770185907842"><ele>313.99999999999994</ele><time>2026-04-28T11:24:37.903Z</time></trkpt><trkpt lat="39.52881110191134" lon="9.345693168954474"><ele>314.0</ele><time>2026-04-28T11:24:38.903Z</time></trkpt><trkpt lat="39.528772949602185" lon="9.345622653626153"><ele>314.0</ele><time>2026-04-28T11:24:39.903Z</time></trkpt><trkpt lat="39.52873403059153" lon="9.3455557317125"><ele>314.0</ele><time>2026-04-28T11:24:40.903Z</time></trkpt><trkpt lat="39.528681585345616" lon="9.345480877048601"><ele>314.0</ele><time>2026-04-28T11:24:41.903Z</time></trkpt><trkpt lat="39.52864941359886" lon="9.345399699074266"><ele>313.99999999999994</ele><time>2026-04-28T11:24:42.903Z</time></trkpt><trkpt lat="39.52859922390858" lon="9.345333867899612"><ele>314.0</ele><time>2026-04-28T11:24:43.903Z</time></trkpt><trkpt lat="39.52855054306734" lon="9.345267199988795"><ele>311.8</ele><time>2026-04-28T11:24:44.903Z</time></trkpt><trkpt lat="39.52849570345007" lon="9.345205935826845"><ele>309.59999999999997</ele><time>2026-04-28T11:24:45.903Z</time></trkpt><trkpt lat="39.52841326631088" lon="9.345093620304509"><ele>307.4</ele><time>2026-04-28T11:24:47.903Z</time></trkpt><trkpt lat="39.52830629986515" lon="9.345024393180589"><ele>305.2</ele><time>2026-04-28T11:24:49.903Z</time></trkpt><trkpt lat="39.528231973384" lon="9.345021585038554"><ele>303.0</ele><time>2026-04-28T11:24:50.903Z</time></trkpt><trkpt lat="39.52815679854446" lon="9.345028074916973"><ele>303.0</ele><time>2026-04-28T11:24:51.903Z</time></trkpt><trkpt lat="39.52808289625515" lon="9.34503608738526"><ele>303.0</ele><time>2026-04-28T11:24:52.903Z</time></trkpt><trkpt lat="39.52801110783332" lon="9.345039588601168"><ele>303.0</ele><time>2026-04-28T11:24:53.903Z</time></trkpt><trkpt lat="39.5279395752157" lon="9.345039588598624"><ele>303.0</ele><time>2026-04-28T11:24:54.903Z</time></trkpt><trkpt lat="39.52787446614991" lon="9.345034292108023"><ele>303.0</ele><time>2026-04-28T11:24:55.903Z</time></trkpt><trkpt lat="39.52780551388293" lon="9.345020133404155"><ele>303.0</ele><time>2026-04-28T11:24:56.903Z</time></trkpt><trkpt lat="39.52773410021324" lon="9.34501320384536"><ele>303.0</ele><time>2026-04-28T11:24:57.903Z</time></trkpt><trkpt lat="39.527670336659305" lon="9.344970396497756"><ele>304.0</ele><time>2026-04-28T11:24:58.903Z</time></trkpt><trkpt lat="39.527590200163324" lon="9.344898441830372"><ele>305.0</ele><time>2026-04-28T11:25:00.903Z</time></trkpt><trkpt lat="39.52754699233128" lon="9.3447997533874"><ele>306.0</ele><time>2026-04-28T11:25:02.903Z</time></trkpt><trkpt lat="39.52750064737486" lon="9.344668096068112"><ele>307.0</ele><time>2026-04-28T11:25:04.903Z</time></trkpt><trkpt lat="39.527453348560975" lon="9.344550157189266"><ele>308.0</ele><time>2026-04-28T11:25:06.903Z</time></trkpt><trkpt lat="39.52746222728851" lon="9.34442609199823"><ele>306.14285714285717</ele><time>2026-04-28T11:25:08.901Z</time></trkpt><trkpt lat="39.527497810656406" lon="9.344357454177459"><ele>304.2857142857143</ele><time>2026-04-28T11:25:09.901Z</time></trkpt><trkpt lat="39.52753785603207" lon="9.344281105634792"><ele>302.42857142857144</ele><time>2026-04-28T11:25:10.901Z</time></trkpt><trkpt lat="39.52757888115964" lon="9.34419158369804"><ele>300.57142857142856</ele><time>2026-04-28T11:25:11.901Z</time></trkpt><trkpt lat="39.52761485252396" lon="9.344114085052201"><ele>298.7142857142857</ele><time>2026-04-28T11:25:12.901Z</time></trkpt><trkpt lat="39.52764142430054" lon="9.344031696248448"><ele>296.8571428571429</ele><time>2026-04-28T11:25:13.901Z</time></trkpt><trkpt lat="39.52766563208345" lon="9.343954372577427"><ele>295.0</ele><time>2026-04-28T11:25:14.901Z</time></trkpt><trkpt lat="39.52768753596073" lon="9.343870366730467"><ele>295.0</ele><time>2026-04-28T11:25:15.901Z</time></trkpt><trkpt lat="39.52772159881948" lon="9.343786101894517"><ele>295.0</ele><time>2026-04-28T11:25:16.901Z</time></trkpt><trkpt lat="39.52776014054066" lon="9.343702128011119"><ele>295.0</ele><time>2026-04-28T11:25:17.901Z</time></trkpt><trkpt lat="39.527797124317914" lon="9.34361275015775"><ele>295.0</ele><time>2026-04-28T11:25:18.901Z</time></trkpt><trkpt lat="39.527841847241184" lon="9.343536132321054"><ele>295.0</ele><time>2026-04-28T11:25:19.901Z</time></trkpt><trkpt lat="39.527869500709315" lon="9.343438316311058"><ele>295.0</ele><time>2026-04-28T11:25:20.901Z</time></trkpt><trkpt lat="39.52787170534263" lon="9.343340399826921"><ele>295.0</ele><time>2026-04-28T11:25:21.901Z</time></trkpt><trkpt lat="39.52787865686628" lon="9.343243536690734"><ele>295.0</ele><time>2026-04-28T11:25:22.901Z</time></trkpt><trkpt lat="39.52788298418659" lon="9.343130035546244"><ele>295.0</ele><time>2026-04-28T11:25:23.901Z</time></trkpt><trkpt lat="39.52790168837281" lon="9.343022632686132"><ele>295.0</ele><time>2026-04-28T11:25:24.901Z</time></trkpt><trkpt lat="39.52789112649213" lon="9.342918807708411"><ele>295.0</ele><time>2026-04-28T11:25:25.901Z</time></trkpt><trkpt lat="39.52790736910155" lon="9.342830985885909"><ele>295.0</ele><time>2026-04-28T11:25:26.901Z</time></trkpt><trkpt lat="39.527917069172155" lon="9.342655420786649"><ele>293.3333333333333</ele><time>2026-04-28T11:25:28.901Z</time></trkpt><trkpt lat="39.52791189633673" lon="9.342550806063768"><ele>291.66666666666663</ele><time>2026-04-28T11:25:29.901Z</time></trkpt><trkpt lat="39.52790649801422" lon="9.342447676563543"><ele>290.0</ele><time>2026-04-28T11:25:30.901Z</time></trkpt><trkpt lat="39.527902448523506" lon="9.342344860525069"><ele>288.3333333333333</ele><time>2026-04-28T11:25:31.901Z</time></trkpt><trkpt lat="39.52788948957896" lon="9.342240334236806"><ele>286.6666666666667</ele><time>2026-04-28T11:25:32.901Z</time></trkpt><trkpt lat="39.52787114274228" lon="9.342139414337511"><ele>285.0</ele><time>2026-04-28T11:25:33.901Z</time></trkpt><trkpt lat="39.527841051001616" lon="9.342051291321896"><ele>281.6</ele><time>2026-04-28T11:25:34.901Z</time></trkpt><trkpt lat="39.527805882345454" lon="9.341980206185024"><ele>278.2</ele><time>2026-04-28T11:25:35.901Z</time></trkpt><trkpt lat="39.52770372480875" lon="9.341847548812309"><ele>274.8</ele><time>2026-04-28T11:25:37.901Z</time></trkpt><trkpt lat="39.52761776618758" lon="9.341797529415421"><ele>271.4</ele><time>2026-04-28T11:25:38.901Z</time></trkpt><trkpt lat="39.527548055007145" lon="9.341783001817895"><ele>268.0</ele><time>2026-04-28T11:25:39.901Z</time></trkpt><trkpt lat="39.52747511080443" lon="9.341728418753467"><ele>268.0</ele><time>2026-04-28T11:25:41.901Z</time></trkpt><trkpt lat="39.527478002156144" lon="9.341619098968645"><ele>268.0</ele><time>2026-04-28T11:25:43.901Z</time></trkpt><trkpt lat="39.52750339219746" lon="9.341543853605854"><ele>268.0</ele><time>2026-04-28T11:25:44.901Z</time></trkpt><trkpt lat="39.5275246608387" lon="9.341444763174652"><ele>268.0</ele><time>2026-04-28T11:25:45.901Z</time></trkpt><trkpt lat="39.52754932143692" lon="9.341329106932479"><ele>268.0</ele><time>2026-04-28T11:25:46.901Z</time></trkpt><trkpt lat="39.527554116211626" lon="9.341243894613427"><ele>268.0</ele><time>2026-04-28T11:25:47.901Z</time></trkpt><trkpt lat="39.52752988581954" lon="9.341090661703024"><ele>266.5</ele><time>2026-04-28T11:25:49.901Z</time></trkpt><trkpt lat="39.52745511888635" lon="9.341028662501396"><ele>265.0</ele><time>2026-04-28T11:25:50.901Z</time></trkpt><trkpt lat="39.527395303700274" lon="9.34094944886392"><ele>263.5</ele><time>2026-04-28T11:25:51.901Z</time></trkpt><trkpt lat="39.52735729960309" lon="9.340847100946817"><ele>262.0</ele><time>2026-04-28T11:25:52.901Z</time></trkpt><trkpt lat="39.52731033888523" lon="9.340741771420825"><ele>260.5</ele><time>2026-04-28T11:25:53.901Z</time></trkpt><trkpt lat="39.527253825692696" lon="9.340652555921972"><ele>259.0</ele><time>2026-04-28T11:25:54.901Z</time></trkpt><trkpt lat="39.52721678991057" lon="9.340556570775458"><ele>257.3333333333333</ele><time>2026-04-28T11:25:55.901Z</time></trkpt><trkpt lat="39.527189428060446" lon="9.340469759997044"><ele>255.66666666666666</ele><time>2026-04-28T11:25:56.901Z</time></trkpt><trkpt lat="39.527175161713" lon="9.34037498580543"><ele>254.0</ele><time>2026-04-28T11:25:57.901Z</time></trkpt><trkpt lat="39.5271731774766" lon="9.340276917296185"><ele>252.33333333333331</ele><time>2026-04-28T11:25:58.901Z</time></trkpt><trkpt lat="39.527174169248646" lon="9.340176160541803"><ele>250.66666666666666</ele><time>2026-04-28T11:25:59.901Z</time></trkpt><trkpt lat="39.52717681390071" lon="9.340070048956886"><ele>249.0</ele><time>2026-04-28T11:26:00.901Z</time></trkpt><trkpt lat="39.52717502634314" lon="9.33998176734146"><ele>249.0</ele><time>2026-04-28T11:26:01.901Z</time></trkpt><trkpt lat="39.52718361058503" lon="9.339877377664637"><ele>248.99999999999997</ele><time>2026-04-28T11:26:02.901Z</time></trkpt><trkpt lat="39.52718906357855" lon="9.339760043097606"><ele>249.0</ele><time>2026-04-28T11:26:03.901Z</time></trkpt><trkpt lat="39.52719639476218" lon="9.33966175474498"><ele>249.0</ele><time>2026-04-28T11:26:04.901Z</time></trkpt><trkpt lat="39.52720579296865" lon="9.33957871066217"><ele>248.99999999999997</ele><time>2026-04-28T11:26:05.901Z</time></trkpt><trkpt lat="39.52721469808699" lon="9.339494499465992"><ele>249.0</ele><time>2026-04-28T11:26:06.901Z</time></trkpt><trkpt lat="39.52722728029545" lon="9.339412881054463"><ele>249.0</ele><time>2026-04-28T11:26:07.901Z</time></trkpt><trkpt lat="39.52725651326287" lon="9.33931631850469"><ele>247.33333333333334</ele><time>2026-04-28T11:26:08.901Z</time></trkpt><trkpt lat="39.52729701024565" lon="9.339215298728565"><ele>245.66666666666669</ele><time>2026-04-28T11:26:09.901Z</time></trkpt><trkpt lat="39.527339156130026" lon="9.339114403655259"><ele>244.0</ele><time>2026-04-28T11:26:10.901Z</time></trkpt><trkpt lat="39.527376088124065" lon="9.339009885994173"><ele>242.33333333333334</ele><time>2026-04-28T11:26:11.901Z</time></trkpt><trkpt lat="39.52741004857707" lon="9.338912012434067"><ele>240.66666666666669</ele><time>2026-04-28T11:26:12.901Z</time></trkpt><trkpt lat="39.52743613391603" lon="9.338823017505494"><ele>239.0</ele><time>2026-04-28T11:26:13.901Z</time></trkpt><trkpt lat="39.52745147611211" lon="9.338738604342364"><ele>237.33333333333334</ele><time>2026-04-28T11:26:14.901Z</time></trkpt><trkpt lat="39.5274528414591" lon="9.338654902208274"><ele>235.66666666666669</ele><time>2026-04-28T11:26:15.901Z</time></trkpt><trkpt lat="39.52743386349805" lon="9.338574498129127"><ele>234.0</ele><time>2026-04-28T11:26:16.901Z</time></trkpt><trkpt lat="39.527416834586674" lon="9.338457008925614"><ele>232.33333333333331</ele><time>2026-04-28T11:26:18.902Z</time></trkpt><trkpt lat="39.52733846140603" lon="9.338328849629228"><ele>230.66666666666666</ele><time>2026-04-28T11:26:20.902Z</time></trkpt><trkpt lat="39.527284758886395" lon="9.33827121162605"><ele>229.0</ele><time>2026-04-28T11:26:21.902Z</time></trkpt><trkpt lat="39.52721726784998" lon="9.33823617684329"><ele>229.0</ele><time>2026-04-28T11:26:22.902Z</time></trkpt><trkpt lat="39.527160456652595" lon="9.338190856078723"><ele>229.0</ele><time>2026-04-28T11:26:23.902Z</time></trkpt><trkpt lat="39.52709686309228" lon="9.338144692019123"><ele>229.0</ele><time>2026-04-28T11:26:24.902Z</time></trkpt><trkpt lat="39.52703182392979" lon="9.338103330190064"><ele>229.0</ele><time>2026-04-28T11:26:25.902Z</time></trkpt><trkpt lat="39.52696351065845" lon="9.338073455772266"><ele>229.0</ele><time>2026-04-28T11:26:26.902Z</time></trkpt><trkpt lat="39.526893550087586" lon="9.338052100306145"><ele>229.0</ele><time>2026-04-28T11:26:27.902Z</time></trkpt><trkpt lat="39.526829699844804" lon="9.33801863096872"><ele>229.0</ele><time>2026-04-28T11:26:28.902Z</time></trkpt><trkpt lat="39.52675796384514" lon="9.33802285584755"><ele>228.0</ele><time>2026-04-28T11:26:29.902Z</time></trkpt><trkpt lat="39.52669403783264" lon="9.338032879662917"><ele>227.0</ele><time>2026-04-28T11:26:30.902Z</time></trkpt><trkpt lat="39.52663113070306" lon="9.338063375484703"><ele>226.0</ele><time>2026-04-28T11:26:31.902Z</time></trkpt><trkpt lat="39.526567964498305" lon="9.338081904384993"><ele>225.0</ele><time>2026-04-28T11:26:32.902Z</time></trkpt><trkpt lat="39.526505098405295" lon="9.33810988458472"><ele>224.0</ele><time>2026-04-28T11:26:33.902Z</time></trkpt><trkpt lat="39.526441682781375" lon="9.338127460913611"><ele>223.0</ele><time>2026-04-28T11:26:34.902Z</time></trkpt><trkpt lat="39.52638071848258" lon="9.338186021156629"><ele>222.0</ele><time>2026-04-28T11:26:35.902Z</time></trkpt><trkpt lat="39.52631159900132" lon="9.338246280935014"><ele>222.0</ele><time>2026-04-28T11:26:37.902Z</time></trkpt><trkpt lat="39.52626061997589" lon="9.338166411671008"><ele>222.0</ele><time>2026-04-28T11:26:39.902Z</time></trkpt><trkpt lat="39.526203444980126" lon="9.337990166032172"><ele>222.0</ele><time>2026-04-28T11:26:41.902Z</time></trkpt><trkpt lat="39.52617071909454" lon="9.337863718199758"><ele>222.0</ele><time>2026-04-28T11:26:42.902Z</time></trkpt><trkpt lat="39.52614777408115" lon="9.337727507474574"><ele>222.0</ele><time>2026-04-28T11:26:43.902Z</time></trkpt><trkpt lat="39.526125561637414" lon="9.33759708029833"><ele>221.0</ele><time>2026-04-28T11:26:44.902Z</time></trkpt><trkpt lat="39.52611140905296" lon="9.337465119403296"><ele>220.0</ele><time>2026-04-28T11:26:45.902Z</time></trkpt><trkpt lat="39.52606134163101" lon="9.337378429604104"><ele>219.0</ele><time>2026-04-28T11:26:46.902Z</time></trkpt><trkpt lat="39.526049571543766" lon="9.337290413721552"><ele>218.0</ele><time>2026-04-28T11:26:47.902Z</time></trkpt><trkpt lat="39.526052543494195" lon="9.337164673510735"><ele>217.0</ele><time>2026-04-28T11:26:49.902Z</time></trkpt><trkpt lat="39.52616237967548" lon="9.337101171464141"><ele>214.49999999999997</ele><time>2026-04-28T11:26:51.902Z</time></trkpt><trkpt lat="39.52623176988462" lon="9.33705134217003"><ele>212.0</ele><time>2026-04-28T11:26:52.902Z</time></trkpt><trkpt lat="39.526316529024065" lon="9.337018974296456"><ele>209.5</ele><time>2026-04-28T11:26:53.902Z</time></trkpt><trkpt lat="39.52640202950492" lon="9.336998487205012"><ele>207.0</ele><time>2026-04-28T11:26:54.902Z</time></trkpt><trkpt lat="39.526473987717374" lon="9.336974946701426"><ele>204.49999999999997</ele><time>2026-04-28T11:26:55.902Z</time></trkpt><trkpt lat="39.52654604890189" lon="9.336988067561348"><ele>202.0</ele><time>2026-04-28T11:26:56.902Z</time></trkpt><trkpt lat="39.526660757439736" lon="9.337021253485858"><ele>201.99999999999997</ele><time>2026-04-28T11:26:58.902Z</time></trkpt><trkpt lat="39.52673322988578" lon="9.337040114560441"><ele>202.0</ele><time>2026-04-28T11:26:59.902Z</time></trkpt><trkpt lat="39.52678586689779" lon="9.337105978113255"><ele>202.0</ele><time>2026-04-28T11:27:00.902Z</time></trkpt><trkpt lat="39.52689462691373" lon="9.337105164884365"><ele>202.0</ele><time>2026-04-28T11:27:02.902Z</time></trkpt><trkpt lat="39.52697143970724" lon="9.337067219219056"><ele>201.99999999999997</ele><time>2026-04-28T11:27:04.902Z</time></trkpt><trkpt lat="39.527049579927095" lon="9.337011132175643"><ele>202.0</ele><time>2026-04-28T11:27:06.902Z</time></trkpt><trkpt lat="39.5270903036495" lon="9.33686854713575"><ele>200.8</ele><time>2026-04-28T11:27:08.902Z</time></trkpt><trkpt lat="39.527120995344816" lon="9.33673400556298"><ele>199.6</ele><time>2026-04-28T11:27:10.902Z</time></trkpt><trkpt lat="39.52719619168273" lon="9.336636988971653"><ele>198.4</ele><time>2026-04-28T11:27:12.902Z</time></trkpt><trkpt lat="39.527291836945714" lon="9.336521158664192"><ele>197.20000000000002</ele><time>2026-04-28T11:27:14.9Z</time></trkpt><trkpt lat="39.527347535751616" lon="9.336446634961659"><ele>196.0</ele><time>2026-04-28T11:27:15.9Z</time></trkpt><trkpt lat="39.52737976935166" lon="9.336358327886918"><ele>197.71428571428572</ele><time>2026-04-28T11:27:16.9Z</time></trkpt><trkpt lat="39.527417226608655" lon="9.336285239243281"><ele>199.42857142857144</ele><time>2026-04-28T11:27:17.901Z</time></trkpt><trkpt lat="39.527448038015955" lon="9.33619850065603"><ele>201.14285714285714</ele><time>2026-04-28T11:27:18.9Z</time></trkpt><trkpt lat="39.52749665893563" lon="9.336120533182143"><ele>202.85714285714286</ele><time>2026-04-28T11:27:19.9Z</time></trkpt><trkpt lat="39.52753666126697" lon="9.336039562685128"><ele>204.57142857142858</ele><time>2026-04-28T11:27:20.901Z</time></trkpt><trkpt lat="39.52757348443926" lon="9.335965928209468"><ele>206.28571428571428</ele><time>2026-04-28T11:27:21.9Z</time></trkpt><trkpt lat="39.52761508001086" lon="9.335896825182807"><ele>208.0</ele><time>2026-04-28T11:27:22.9Z</time></trkpt><trkpt lat="39.52766161922093" lon="9.335839449573413"><ele>207.99999999999997</ele><time>2026-04-28T11:27:23.901Z</time></trkpt><trkpt lat="39.52776171259786" lon="9.335727463204131"><ele>208.0</ele><time>2026-04-28T11:27:25.9Z</time></trkpt><trkpt lat="39.52781091597792" lon="9.335675684575586"><ele>208.0</ele><time>2026-04-28T11:27:26.9Z</time></trkpt><trkpt lat="39.52785517737321" lon="9.335605173509249"><ele>208.0</ele><time>2026-04-28T11:27:28.9Z</time></trkpt><trkpt lat="39.527895195514354" lon="9.335526506011146"><ele>207.99999999999997</ele><time>2026-04-28T11:28:51.901Z</time></trkpt><trkpt lat="39.52792189818351" lon="9.335446421132398"><ele>208.0</ele><time>2026-04-28T11:28:53.901Z</time></trkpt><trkpt lat="39.52792017756342" lon="9.335312163236184"><ele>209.66666666666666</ele><time>2026-04-28T11:28:55.901Z</time></trkpt><trkpt lat="39.52790275219796" lon="9.335187130927086"><ele>211.33333333333331</ele><time>2026-04-28T11:28:57.901Z</time></trkpt><trkpt lat="39.52790060028038" lon="9.335087149986634"><ele>213.0</ele><time>2026-04-28T11:28:59.901Z</time></trkpt><trkpt lat="39.527903249129295" lon="9.334972879029241"><ele>214.66666666666669</ele><time>2026-04-28T11:29:01.901Z</time></trkpt><trkpt lat="39.52796153262433" lon="9.33490370899692"><ele>216.33333333333334</ele><time>2026-04-28T11:29:03.901Z</time></trkpt><trkpt lat="39.52806728889305" lon="9.334912300871867"><ele>218.0</ele><time>2026-04-28T11:29:05.901Z</time></trkpt><trkpt lat="39.52815303382268" lon="9.334933715629475"><ele>218.0</ele><time>2026-04-28T11:29:06.901Z</time></trkpt><trkpt lat="39.5282452007983" lon="9.334975214593333"><ele>218.0</ele><time>2026-04-28T11:29:07.901Z</time></trkpt><trkpt lat="39.5283404806753" lon="9.335021682057898"><ele>218.0</ele><time>2026-04-28T11:29:08.901Z</time></trkpt><trkpt lat="39.52845544040477" lon="9.33509743140394"><ele>218.0</ele><time>2026-04-28T11:29:09.901Z</time></trkpt><trkpt lat="39.5285625401898" lon="9.335187013632282"><ele>218.0</ele><time>2026-04-28T11:29:10.901Z</time></trkpt><trkpt lat="39.52867510248118" lon="9.335283808317186"><ele>218.0</ele><time>2026-04-28T11:29:11.901Z</time></trkpt><trkpt lat="39.528795309702815" lon="9.335388879513328"><ele>218.0</ele><time>2026-04-28T11:29:12.901Z</time></trkpt><trkpt lat="39.52890324738958" lon="9.33550948331228"><ele>218.0</ele><time>2026-04-28T11:29:13.901Z</time></trkpt><trkpt lat="39.52899710956964" lon="9.335639926539816"><ele>215.75</ele><time>2026-04-28T11:29:14.901Z</time></trkpt><trkpt lat="39.529092435630545" lon="9.33577192741618"><ele>213.5</ele><time>2026-04-28T11:29:15.901Z</time></trkpt><trkpt lat="39.52918017163482" lon="9.335899912493367"><ele>211.25</ele><time>2026-04-28T11:29:16.901Z</time></trkpt><trkpt lat="39.52926553483157" lon="9.336014985321004"><ele>209.0</ele><time>2026-04-28T11:29:17.902Z</time></trkpt><trkpt lat="39.529346625169744" lon="9.336106685197622"><ele>209.0</ele><time>2026-04-28T11:29:18.902Z</time></trkpt><trkpt lat="39.52942996376767" lon="9.336154853373738"><ele>209.0</ele><time>2026-04-28T11:29:19.902Z</time></trkpt><trkpt lat="39.52952333295628" lon="9.3361863807701"><ele>209.0</ele><time>2026-04-28T11:29:20.9Z</time></trkpt><trkpt lat="39.52961963380856" lon="9.336176937628055"><ele>209.0</ele><time>2026-04-28T11:29:21.9Z</time></trkpt><trkpt lat="39.529712332113604" lon="9.3361365143412"><ele>209.0</ele><time>2026-04-28T11:29:22.9Z</time></trkpt><trkpt lat="39.52980049665817" lon="9.336062362442279"><ele>208.25</ele><time>2026-04-28T11:29:23.9Z</time></trkpt><trkpt lat="39.5298895160344" lon="9.33598588845575"><ele>207.5</ele><time>2026-04-28T11:29:24.9Z</time></trkpt><trkpt lat="39.52997860406881" lon="9.33588258529835"><ele>206.75</ele><time>2026-04-28T11:29:25.9Z</time></trkpt><trkpt lat="39.53007980076043" lon="9.33579072606582"><ele>206.0</ele><time>2026-04-28T11:29:26.9Z</time></trkpt><trkpt lat="39.530191219836304" lon="9.335700946273763"><ele>206.0</ele><time>2026-04-28T11:29:27.899Z</time></trkpt><trkpt lat="39.53031453976739" lon="9.335631723934297"><ele>206.0</ele><time>2026-04-28T11:29:28.899Z</time></trkpt><trkpt lat="39.53044731873697" lon="9.335590347915259"><ele>206.0</ele><time>2026-04-28T11:29:29.9Z</time></trkpt><trkpt lat="39.53058876185738" lon="9.33556666867042"><ele>206.0</ele><time>2026-04-28T11:29:30.9Z</time></trkpt><trkpt lat="39.53073386764459" lon="9.335548126164323"><ele>203.75</ele><time>2026-04-28T11:29:31.9Z</time></trkpt><trkpt lat="39.530886653523424" lon="9.335544449730262"><ele>201.5</ele><time>2026-04-28T11:29:32.9Z</time></trkpt><trkpt lat="39.53103716777473" lon="9.335545672258391"><ele>199.25</ele><time>2026-04-28T11:29:33.9Z</time></trkpt><trkpt lat="39.53117537021371" lon="9.335563353665371"><ele>197.0</ele><time>2026-04-28T11:29:34.9Z</time></trkpt><trkpt lat="39.53130207882344" lon="9.335589084680555"><ele>197.0</ele><time>2026-04-28T11:29:35.9Z</time></trkpt><trkpt lat="39.531423114131655" lon="9.335659586482507"><ele>197.0</ele><time>2026-04-28T11:29:36.9Z</time></trkpt><trkpt lat="39.531546067968" lon="9.335753815562985"><ele>197.0</ele><time>2026-04-28T11:29:37.9Z</time></trkpt><trkpt lat="39.53167278881291" lon="9.335866956828538"><ele>197.0</ele><time>2026-04-28T11:29:38.9Z</time></trkpt><trkpt lat="39.53180153696729" lon="9.335991490950528"><ele>197.0</ele><time>2026-04-28T11:29:39.9Z</time></trkpt><trkpt lat="39.53193000605422" lon="9.336116592657161"><ele>197.0</ele><time>2026-04-28T11:29:40.9Z</time></trkpt><trkpt lat="39.53205360147114" lon="9.336252416751332"><ele>197.0</ele><time>2026-04-28T11:29:41.9Z</time></trkpt><trkpt lat="39.532180069833295" lon="9.336393075218693"><ele>195.66666666666669</ele><time>2026-04-28T11:29:42.9Z</time></trkpt><trkpt lat="39.53230050463075" lon="9.336527570522714"><ele>194.33333333333331</ele><time>2026-04-28T11:29:43.9Z</time></trkpt><trkpt lat="39.53241069525061" lon="9.33667238197645"><ele>193.0</ele><time>2026-04-28T11:29:44.9Z</time></trkpt><trkpt lat="39.53250639230814" lon="9.336809130516798"><ele>193.0</ele><time>2026-04-28T11:29:45.9Z</time></trkpt><trkpt lat="39.53258999587146" lon="9.33693528727923"><ele>193.0</ele><time>2026-04-28T11:29:46.9Z</time></trkpt><trkpt lat="39.53267160138159" lon="9.337029433873125"><ele>193.0</ele><time>2026-04-28T11:29:47.9Z</time></trkpt><trkpt lat="39.53274380966184" lon="9.337099427392689"><ele>193.0</ele><time>2026-04-28T11:29:48.9Z</time></trkpt><trkpt lat="39.532815096402125" lon="9.33712108340874"><ele>193.0</ele><time>2026-04-28T11:29:49.9Z</time></trkpt><trkpt lat="39.53289694905323" lon="9.337110306562016"><ele>192.0</ele><time>2026-04-28T11:29:50.9Z</time></trkpt><trkpt lat="39.53296961364809" lon="9.337068390738938"><ele>191.0</ele><time>2026-04-28T11:29:51.9Z</time></trkpt><trkpt lat="39.53303918439042" lon="9.336991655413357"><ele>190.0</ele><time>2026-04-28T11:29:52.9Z</time></trkpt><trkpt lat="39.533125491126576" lon="9.336882776475024"><ele>189.0</ele><time>2026-04-28T11:29:53.9Z</time></trkpt><trkpt lat="39.53322217841003" lon="9.33677471841222"><ele>188.0</ele><time>2026-04-28T11:29:54.9Z</time></trkpt><trkpt lat="39.53333121449037" lon="9.336674004803944"><ele>188.0</ele><time>2026-04-28T11:29:55.9Z</time></trkpt><trkpt lat="39.53345519219859" lon="9.336599938726264"><ele>188.0</ele><time>2026-04-28T11:29:56.9Z</time></trkpt><trkpt lat="39.53358071215413" lon="9.336541596164961"><ele>188.0</ele><time>2026-04-28T11:29:57.9Z</time></trkpt><trkpt lat="39.533705654833696" lon="9.336516792391992"><ele>188.0</ele><time>2026-04-28T11:29:58.9Z</time></trkpt><trkpt lat="39.53383270523226" lon="9.33652014727347"><ele>185.60000000000002</ele><time>2026-04-28T11:29:59.9Z</time></trkpt><trkpt lat="39.53396215840728" lon="9.336549985701106"><ele>183.20000000000002</ele><time>2026-04-28T11:30:00.9Z</time></trkpt><trkpt lat="39.53408530489336" lon="9.336579617174472"><ele>180.8</ele><time>2026-04-28T11:30:01.9Z</time></trkpt><trkpt lat="39.53418809308664" lon="9.336595854105584"><ele>178.4</ele><time>2026-04-28T11:30:02.9Z</time></trkpt><trkpt lat="39.53427166095855" lon="9.336592657932375"><ele>176.0</ele><time>2026-04-28T11:30:03.9Z</time></trkpt><trkpt lat="39.534337451618065" lon="9.336556302362705"><ele>176.0</ele><time>2026-04-28T11:30:04.9Z</time></trkpt><trkpt lat="39.53438976701888" lon="9.336483844015161"><ele>176.0</ele><time>2026-04-28T11:30:05.9Z</time></trkpt><trkpt lat="39.534437435738774" lon="9.336393145677354"><ele>176.0</ele><time>2026-04-28T11:30:06.901Z</time></trkpt><trkpt lat="39.53449600603123" lon="9.336269621128002"><ele>176.0</ele><time>2026-04-28T11:30:07.901Z</time></trkpt><trkpt lat="39.53454761279629" lon="9.336137519032015"><ele>176.0</ele><time>2026-04-28T11:30:08.901Z</time></trkpt><trkpt lat="39.53462316859931" lon="9.335995218865609"><ele>175.75</ele><time>2026-04-28T11:30:09.901Z</time></trkpt><trkpt lat="39.53472437675473" lon="9.335862079324398"><ele>175.5</ele><time>2026-04-28T11:30:10.901Z</time></trkpt><trkpt lat="39.53483697090019" lon="9.335745507166312"><ele>175.25</ele><time>2026-04-28T11:30:11.901Z</time></trkpt><trkpt lat="39.53495278819858" lon="9.335644249365208"><ele>175.0</ele><time>2026-04-28T11:30:12.901Z</time></trkpt><trkpt lat="39.53507603832751" lon="9.33555958776885"><ele>172.66666666666669</ele><time>2026-04-28T11:30:13.901Z</time></trkpt><trkpt lat="39.53521184731669" lon="9.33548718446316"><ele>170.33333333333334</ele><time>2026-04-28T11:30:14.901Z</time></trkpt><trkpt lat="39.535347375494446" lon="9.33542296391435"><ele>168.0</ele><time>2026-04-28T11:30:15.901Z</time></trkpt><trkpt lat="39.53549873388333" lon="9.335354962958592"><ele>168.0</ele><time>2026-04-28T11:30:16.901Z</time></trkpt><trkpt lat="39.535659657142666" lon="9.335296773951745"><ele>168.0</ele><time>2026-04-28T11:30:17.901Z</time></trkpt><trkpt lat="39.535812272394686" lon="9.335229694681601"><ele>168.0</ele><time>2026-04-28T11:30:18.901Z</time></trkpt><trkpt lat="39.535952308626655" lon="9.335165828481596"><ele>168.0</ele><time>2026-04-28T11:30:19.901Z</time></trkpt><trkpt lat="39.53607316587339" lon="9.335096059694502"><ele>168.0</ele><time>2026-04-28T11:30:20.901Z</time></trkpt><trkpt lat="39.536175558649056" lon="9.335072867657223"><ele>168.0</ele><time>2026-04-28T11:30:21.901Z</time></trkpt><trkpt lat="39.53625621660203" lon="9.335062809681999"><ele>168.0</ele><time>2026-04-28T11:30:22.901Z</time></trkpt><trkpt lat="39.53632671343615" lon="9.335083387429103"><ele>168.0</ele><time>2026-04-28T11:30:23.901Z</time></trkpt><trkpt lat="39.53639177483063" lon="9.335142384000195"><ele>167.75</ele><time>2026-04-28T11:30:24.901Z</time></trkpt><trkpt lat="39.5364504503959" lon="9.335240895337115"><ele>167.5</ele><time>2026-04-28T11:30:25.901Z</time></trkpt><trkpt lat="39.53650675115073" lon="9.335378486001261"><ele>167.25</ele><time>2026-04-28T11:30:26.901Z</time></trkpt><trkpt lat="39.536573519042825" lon="9.335530895877913"><ele>167.0</ele><time>2026-04-28T11:30:27.901Z</time></trkpt><trkpt lat="39.53665771383699" lon="9.335680666098346"><ele>167.0</ele><time>2026-04-28T11:30:28.901Z</time></trkpt><trkpt lat="39.53674612171525" lon="9.335836475956409"><ele>167.0</ele><time>2026-04-28T11:30:29.901Z</time></trkpt><trkpt lat="39.53683817799742" lon="9.336003029464244"><ele>167.0</ele><time>2026-04-28T11:30:30.901Z</time></trkpt><trkpt lat="39.53693399660164" lon="9.33617567973224"><ele>167.0</ele><time>2026-04-28T11:30:31.901Z</time></trkpt><trkpt lat="39.53703318159294" lon="9.33634728431084"><ele>167.0</ele><time>2026-04-28T11:30:32.901Z</time></trkpt><trkpt lat="39.53713149562455" lon="9.336515351895152"><ele>167.0</ele><time>2026-04-28T11:30:33.901Z</time></trkpt><trkpt lat="39.53722429161723" lon="9.336669528804345"><ele>168.0</ele><time>2026-04-28T11:30:34.901Z</time></trkpt><trkpt lat="39.53731671336389" lon="9.336800008641564"><ele>169.0</ele><time>2026-04-28T11:30:35.901Z</time></trkpt><trkpt lat="39.53741955909104" lon="9.336916905842944"><ele>170.0</ele><time>2026-04-28T11:30:36.901Z</time></trkpt><trkpt lat="39.53753147872214" lon="9.337021269178415"><ele>171.0</ele><time>2026-04-28T11:30:37.901Z</time></trkpt><trkpt lat="39.53764770963983" lon="9.337127487461924"><ele>169.25</ele><time>2026-04-28T11:30:38.901Z</time></trkpt><trkpt lat="39.53776339655023" lon="9.337237257087311"><ele>167.5</ele><time>2026-04-28T11:30:39.901Z</time></trkpt><trkpt lat="39.537870274128366" lon="9.337363468813564"><ele>165.75</ele><time>2026-04-28T11:30:40.901Z</time></trkpt><trkpt lat="39.53796342684509" lon="9.337509374236655"><ele>164.0</ele><time>2026-04-28T11:30:41.901Z</time></trkpt><trkpt lat="39.538046689722336" lon="9.337670619629446"><ele>169.0</ele><time>2026-04-28T11:30:42.901Z</time></trkpt><trkpt lat="39.538124554943195" lon="9.337838982167243"><ele>174.0</ele><time>2026-04-28T11:30:43.901Z</time></trkpt><trkpt lat="39.538196830626056" lon="9.338011354921292"><ele>179.0</ele><time>2026-04-28T11:30:44.901Z</time></trkpt><trkpt lat="39.538259275332706" lon="9.338192107873668"><ele>179.0</ele><time>2026-04-28T11:30:45.901Z</time></trkpt><trkpt lat="39.538315276931584" lon="9.338379390074598"><ele>179.0</ele><time>2026-04-28T11:30:46.901Z</time></trkpt><trkpt lat="39.538360064764035" lon="9.338583786314617"><ele>179.0</ele><time>2026-04-28T11:30:47.901Z</time></trkpt><trkpt lat="39.53840061670438" lon="9.338794878846766"><ele>174.66666666666666</ele><time>2026-04-28T11:30:48.901Z</time></trkpt><trkpt lat="39.53843765864952" lon="9.339015931017558"><ele>170.33333333333334</ele><time>2026-04-28T11:30:49.901Z</time></trkpt><trkpt lat="39.538476757979566" lon="9.339225021371469"><ele>166.0</ele><time>2026-04-28T11:30:50.901Z</time></trkpt><trkpt lat="39.538503796388575" lon="9.339431788720285"><ele>166.0</ele><time>2026-04-28T11:30:51.901Z</time></trkpt><trkpt lat="39.53854902026268" lon="9.339634328301704"><ele>166.0</ele><time>2026-04-28T11:30:52.901Z</time></trkpt><trkpt lat="39.53861291824039" lon="9.339838443186022"><ele>166.0</ele><time>2026-04-28T11:30:53.901Z</time></trkpt><trkpt lat="39.53869670233728" lon="9.340032684205244"><ele>166.0</ele><time>2026-04-28T11:30:54.901Z</time></trkpt><trkpt lat="39.53878356453613" lon="9.340224221106228"><ele>166.0</ele><time>2026-04-28T11:30:55.901Z</time></trkpt><trkpt lat="39.53887104007257" lon="9.340416518456905"><ele>166.0</ele><time>2026-04-28T11:30:56.901Z</time></trkpt><trkpt lat="39.53896491812839" lon="9.340597818081866"><ele>166.0</ele><time>2026-04-28T11:30:57.901Z</time></trkpt><trkpt lat="39.539073369522065" lon="9.340774043143"><ele>166.0</ele><time>2026-04-28T11:30:58.901Z</time></trkpt><trkpt lat="39.53917922622946" lon="9.340935571663135"><ele>166.0</ele><time>2026-04-28T11:30:59.901Z</time></trkpt><trkpt lat="39.53930226770023" lon="9.341087885230646"><ele>166.0</ele><time>2026-04-28T11:31:00.901Z</time></trkpt><trkpt lat="39.53944232005437" lon="9.341213189472825"><ele>166.0</ele><time>2026-04-28T11:31:01.901Z</time></trkpt><trkpt lat="39.539578491572655" lon="9.341349952202743"><ele>166.0</ele><time>2026-04-28T11:31:02.902Z</time></trkpt><trkpt lat="39.53972453008372" lon="9.341485790991307"><ele>166.66666666666669</ele><time>2026-04-28T11:31:03.902Z</time></trkpt><trkpt lat="39.53986627640746" lon="9.341616553671013"><ele>167.33333333333334</ele><time>2026-04-28T11:31:04.902Z</time></trkpt><trkpt lat="39.53999637139928" lon="9.341744290224499"><ele>168.0</ele><time>2026-04-28T11:31:05.902Z</time></trkpt><trkpt lat="39.54010809071422" lon="9.341861426802513"><ele>168.0</ele><time>2026-04-28T11:31:06.902Z</time></trkpt><trkpt lat="39.540214314220805" lon="9.341973454563789"><ele>168.0</ele><time>2026-04-28T11:31:07.902Z</time></trkpt><trkpt lat="39.540295915270235" lon="9.342085061825916"><ele>168.0</ele><time>2026-04-28T11:31:08.902Z</time></trkpt><trkpt lat="39.54035493807342" lon="9.342219631310101"><ele>168.0</ele><time>2026-04-28T11:31:09.902Z</time></trkpt><trkpt lat="39.54040731084064" lon="9.342374803020428"><ele>165.5</ele><time>2026-04-28T11:31:10.902Z</time></trkpt><trkpt lat="39.540422530508565" lon="9.342549009312428"><ele>163.0</ele><time>2026-04-28T11:31:11.902Z</time></trkpt><trkpt lat="39.54042913962574" lon="9.342727035220072"><ele>160.5</ele><time>2026-04-28T11:31:12.902Z</time></trkpt><trkpt lat="39.54044320219242" lon="9.342888562169671"><ele>158.0</ele><time>2026-04-28T11:31:13.902Z</time></trkpt><trkpt lat="39.540483950728564" lon="9.343029009390209"><ele>156.4</ele><time>2026-04-28T11:31:14.902Z</time></trkpt><trkpt lat="39.54054178332111" lon="9.343164850337807"><ele>154.8</ele><time>2026-04-28T11:31:15.902Z</time></trkpt><trkpt lat="39.540617311605956" lon="9.343278869422772"><ele>153.2</ele><time>2026-04-28T11:31:16.902Z</time></trkpt><trkpt lat="39.54068982011203" lon="9.343357477042082"><ele>151.6</ele><time>2026-04-28T11:31:17.902Z</time></trkpt><trkpt lat="39.540756146832116" lon="9.343404037657638"><ele>150.0</ele><time>2026-04-28T11:31:18.902Z</time></trkpt><trkpt lat="39.540821042285216" lon="9.343438671622454"><ele>150.0</ele><time>2026-04-28T11:31:19.902Z</time></trkpt><trkpt lat="39.540903772201354" lon="9.343378267825154"><ele>150.0</ele><time>2026-04-28T11:31:20.902Z</time></trkpt><trkpt lat="39.54097840865543" lon="9.343323217802466"><ele>150.0</ele><time>2026-04-28T11:31:21.902Z</time></trkpt><trkpt lat="39.54105983216307" lon="9.343262011011387"><ele>150.0</ele><time>2026-04-28T11:31:22.902Z</time></trkpt><trkpt lat="39.54114994435439" lon="9.343210687860266"><ele>150.0</ele><time>2026-04-28T11:31:23.902Z</time></trkpt><trkpt lat="39.54125043621671" lon="9.343183720626367"><ele>149.2</ele><time>2026-04-28T11:31:24.902Z</time></trkpt><trkpt lat="39.541357414649916" lon="9.343174615847333"><ele>148.4</ele><time>2026-04-28T11:31:25.902Z</time></trkpt><trkpt lat="39.54147040196729" lon="9.343183141710211"><ele>147.6</ele><time>2026-04-28T11:31:26.9Z</time></trkpt><trkpt lat="39.541591806039484" lon="9.343200510181326"><ele>146.8</ele><time>2026-04-28T11:31:27.899Z</time></trkpt><trkpt lat="39.541688752851535" lon="9.343238269267465"><ele>146.0</ele><time>2026-04-28T11:31:28.899Z</time></trkpt><trkpt lat="39.54176940488043" lon="9.343303928676285"><ele>146.0</ele><time>2026-04-28T11:31:29.899Z</time></trkpt><trkpt lat="39.54182172450781" lon="9.343380230284021"><ele>146.0</ele><time>2026-04-28T11:31:30.899Z</time></trkpt><trkpt lat="39.5418273332766" lon="9.343477033859326"><ele>146.0</ele><time>2026-04-28T11:31:31.899Z</time></trkpt><trkpt lat="39.54181110271912" lon="9.34357822892136"><ele>146.0</ele><time>2026-04-28T11:31:32.9Z</time></trkpt><trkpt lat="39.54178333036547" lon="9.343702247900517"><ele>146.0</ele><time>2026-04-28T11:31:33.899Z</time></trkpt><trkpt lat="39.541743813797495" lon="9.343842035172091"><ele>146.0</ele><time>2026-04-28T11:31:34.899Z</time></trkpt><trkpt lat="39.54175529453906" lon="9.343988211858301"><ele>147.4</ele><time>2026-04-28T11:31:35.899Z</time></trkpt><trkpt lat="39.541780257734054" lon="9.344137236620178"><ele>148.8</ele><time>2026-04-28T11:31:36.899Z</time></trkpt><trkpt lat="39.541793457283696" lon="9.344287502383784"><ele>150.20000000000002</ele><time>2026-04-28T11:31:37.899Z</time></trkpt><trkpt lat="39.54182896012283" lon="9.34442496466434"><ele>151.6</ele><time>2026-04-28T11:31:38.9Z</time></trkpt><trkpt lat="39.541879437739" lon="9.344528922635796"><ele>153.0</ele><time>2026-04-28T11:31:39.898Z</time></trkpt><trkpt lat="39.54195678214505" lon="9.34459718899658"><ele>149.25</ele><time>2026-04-28T11:31:40.898Z</time></trkpt><trkpt lat="39.54206323535363" lon="9.344625520261335"><ele>145.5</ele><time>2026-04-28T11:31:41.899Z</time></trkpt><trkpt lat="39.54217022391411" lon="9.344635981791571"><ele>141.75</ele><time>2026-04-28T11:31:42.899Z</time></trkpt><trkpt lat="39.5422953426779" lon="9.3446143919516"><ele>138.0</ele><time>2026-04-28T11:31:43.899Z</time></trkpt><trkpt lat="39.542410416102705" lon="9.344579132670837"><ele>138.0</ele><time>2026-04-28T11:31:44.899Z</time></trkpt><trkpt lat="39.54251532511212" lon="9.344546987882872"><ele>138.0</ele><time>2026-04-28T11:31:45.899Z</time></trkpt><trkpt lat="39.542597519311805" lon="9.34453534221484"><ele>138.0</ele><time>2026-04-28T11:31:46.899Z</time></trkpt><trkpt lat="39.542668021440576" lon="9.344569924917423"><ele>138.0</ele><time>2026-04-28T11:31:47.899Z</time></trkpt><trkpt lat="39.54270890705951" lon="9.34465670630379"><ele>138.0</ele><time>2026-04-28T11:31:48.899Z</time></trkpt><trkpt lat="39.54274795539205" lon="9.34476726182074"><ele>138.0</ele><time>2026-04-28T11:31:49.899Z</time></trkpt><trkpt lat="39.54280730284957" lon="9.344898329971155"><ele>138.5</ele><time>2026-04-28T11:31:50.899Z</time></trkpt><trkpt lat="39.542870321406724" lon="9.345034252141552"><ele>139.0</ele><time>2026-04-28T11:31:51.899Z</time></trkpt><trkpt lat="39.54294477041492" lon="9.34518011119172"><ele>139.5</ele><time>2026-04-28T11:31:52.899Z</time></trkpt><trkpt lat="39.54303420049352" lon="9.345333530155415"><ele>140.0</ele><time>2026-04-28T11:31:53.899Z</time></trkpt><trkpt lat="39.54314054010274" lon="9.345488985469858"><ele>140.66666666666666</ele><time>2026-04-28T11:31:54.899Z</time></trkpt><trkpt lat="39.54324462196541" lon="9.34564231233202"><ele>141.33333333333334</ele><time>2026-04-28T11:31:55.899Z</time></trkpt><trkpt lat="39.54334927502075" lon="9.345797339432222"><ele>142.0</ele><time>2026-04-28T11:31:56.899Z</time></trkpt><trkpt lat="39.5434598320768" lon="9.345961272257828"><ele>142.0</ele><time>2026-04-28T11:31:57.899Z</time></trkpt><trkpt lat="39.543574561928395" lon="9.34612926358728"><ele>142.0</ele><time>2026-04-28T11:31:58.899Z</time></trkpt><trkpt lat="39.543693701918556" lon="9.346303268438886"><ele>142.0</ele><time>2026-04-28T11:31:59.899Z</time></trkpt><trkpt lat="39.54380381589982" lon="9.346470811390958"><ele>137.0</ele><time>2026-04-28T11:32:00.899Z</time></trkpt><trkpt lat="39.54391729664888" lon="9.3466216429372"><ele>132.0</ele><time>2026-04-28T11:32:01.899Z</time></trkpt><trkpt lat="39.543987505536236" lon="9.346804161138856"><ele>127.0</ele><time>2026-04-28T11:32:02.899Z</time></trkpt><trkpt lat="39.54405753745394" lon="9.346969937460832"><ele>127.0</ele><time>2026-04-28T11:32:03.899Z</time></trkpt><trkpt lat="39.544140798111194" lon="9.347126543863613"><ele>127.0</ele><time>2026-04-28T11:32:04.899Z</time></trkpt><trkpt lat="39.544245934207936" lon="9.347248742470095"><ele>127.0</ele><time>2026-04-28T11:32:05.899Z</time></trkpt><trkpt lat="39.54436954972923" lon="9.347341076386448"><ele>127.0</ele><time>2026-04-28T11:32:06.899Z</time></trkpt><trkpt lat="39.54449073955954" lon="9.347454353892076"><ele>126.0</ele><time>2026-04-28T11:32:07.899Z</time></trkpt><trkpt lat="39.54460758647598" lon="9.347578800620575"><ele>125.0</ele><time>2026-04-28T11:32:08.899Z</time></trkpt><trkpt lat="39.54469488371419" lon="9.34774973052378"><ele>124.0</ele><time>2026-04-28T11:32:09.899Z</time></trkpt><trkpt lat="39.54478211486956" lon="9.34789809986644"><ele>124.0</ele><time>2026-04-28T11:32:10.899Z</time></trkpt><trkpt lat="39.544861041052854" lon="9.348027954577583"><ele>124.0</ele><time>2026-04-28T11:32:11.899Z</time></trkpt><trkpt lat="39.5449318944258" lon="9.348135164192225"><ele>124.0</ele><time>2026-04-28T11:32:12.899Z</time></trkpt><trkpt lat="39.54496949331703" lon="9.348275126664447"><ele>124.0</ele><time>2026-04-28T11:32:13.899Z</time></trkpt><trkpt lat="39.54497090083893" lon="9.348434182754595"><ele>123.75</ele><time>2026-04-28T11:32:14.899Z</time></trkpt><trkpt lat="39.544982144053456" lon="9.348607715982185"><ele>123.5</ele><time>2026-04-28T11:32:15.899Z</time></trkpt><trkpt lat="39.54501350665858" lon="9.348783959825"><ele>123.25</ele><time>2026-04-28T11:32:16.899Z</time></trkpt><trkpt lat="39.545072872635494" lon="9.34895739443067"><ele>123.0</ele><time>2026-04-28T11:32:17.899Z</time></trkpt><trkpt lat="39.54515682791129" lon="9.349127463318773"><ele>125.33333333333334</ele><time>2026-04-28T11:32:18.899Z</time></trkpt><trkpt lat="39.545219539822774" lon="9.34931912148778"><ele>127.66666666666667</ele><time>2026-04-28T11:32:19.899Z</time></trkpt><trkpt lat="39.545269010108974" lon="9.349517352020154"><ele>130.0</ele><time>2026-04-28T11:32:20.899Z</time></trkpt><trkpt lat="39.545304145314205" lon="9.349718669807636"><ele>132.66666666666669</ele><time>2026-04-28T11:32:21.899Z</time></trkpt><trkpt lat="39.54533723481886" lon="9.349924541044663"><ele>135.33333333333334</ele><time>2026-04-28T11:32:22.899Z</time></trkpt><trkpt lat="39.54537949206326" lon="9.350130512434378"><ele>138.0</ele><time>2026-04-28T11:32:23.899Z</time></trkpt><trkpt lat="39.54543581339215" lon="9.350334270205943"><ele>130.66666666666666</ele><time>2026-04-28T11:32:24.899Z</time></trkpt><trkpt lat="39.54550036258095" lon="9.35054079663513"><ele>123.33333333333333</ele><time>2026-04-28T11:32:25.899Z</time></trkpt><trkpt lat="39.545571092174555" lon="9.350743261829242"><ele>116.0</ele><time>2026-04-28T11:32:26.899Z</time></trkpt><trkpt lat="39.54564503916448" lon="9.350941103728179"><ele>116.0</ele><time>2026-04-28T11:32:27.899Z</time></trkpt><trkpt lat="39.54572508253836" lon="9.351125061293752"><ele>116.0</ele><time>2026-04-28T11:32:28.899Z</time></trkpt><trkpt lat="39.545799346621294" lon="9.351291907522832"><ele>116.0</ele><time>2026-04-28T11:32:29.899Z</time></trkpt><trkpt lat="39.545870205259504" lon="9.351451631073438"><ele>116.75</ele><time>2026-04-28T11:32:30.899Z</time></trkpt><trkpt lat="39.54592019159745" lon="9.35161216123978"><ele>117.5</ele><time>2026-04-28T11:32:31.899Z</time></trkpt><trkpt lat="39.54595563269095" lon="9.351775464948316"><ele>118.25</ele><time>2026-04-28T11:32:32.899Z</time></trkpt><trkpt lat="39.545985224316226" lon="9.3519385442242"><ele>119.0</ele><time>2026-04-28T11:32:33.899Z</time></trkpt><trkpt lat="39.546006087768475" lon="9.352105290541806"><ele>119.5</ele><time>2026-04-28T11:32:34.899Z</time></trkpt><trkpt lat="39.54601972939431" lon="9.35227529945424"><ele>120.0</ele><time>2026-04-28T11:32:35.899Z</time></trkpt><trkpt lat="39.54601688901285" lon="9.352453734718011"><ele>120.5</ele><time>2026-04-28T11:32:36.899Z</time></trkpt><trkpt lat="39.54600860714597" lon="9.352643325078134"><ele>121.0</ele><time>2026-04-28T11:32:37.9Z</time></trkpt><trkpt lat="39.546001802288615" lon="9.352842898754616"><ele>119.66666666666667</ele><time>2026-04-28T11:32:38.9Z</time></trkpt><trkpt lat="39.546005653673454" lon="9.353049275478105"><ele>118.33333333333334</ele><time>2026-04-28T11:32:39.9Z</time></trkpt><trkpt lat="39.54602337166092" lon="9.353270449269825"><ele>117.0</ele><time>2026-04-28T11:32:40.9Z</time></trkpt><trkpt lat="39.54604883902134" lon="9.353494888180546"><ele>117.0</ele><time>2026-04-28T11:32:41.9Z</time></trkpt><trkpt lat="39.5460727444859" lon="9.353719941763785"><ele>117.0</ele><time>2026-04-28T11:32:42.9Z</time></trkpt><trkpt lat="39.54609827336849" lon="9.353944467288821"><ele>117.0</ele><time>2026-04-28T11:32:43.9Z</time></trkpt><trkpt lat="39.54612838862698" lon="9.354164925511423"><ele>116.33333333333334</ele><time>2026-04-28T11:32:44.9Z</time></trkpt><trkpt lat="39.54613673059647" lon="9.354382895131534"><ele>115.66666666666667</ele><time>2026-04-28T11:32:45.9Z</time></trkpt><trkpt lat="39.54617647521423" lon="9.354593454342064"><ele>115.0</ele><time>2026-04-28T11:32:46.9Z</time></trkpt><trkpt lat="39.54620868943977" lon="9.354809319022982"><ele>111.0</ele><time>2026-04-28T11:32:47.9Z</time></trkpt><trkpt lat="39.546231257203175" lon="9.355021156018815"><ele>107.0</ele><time>2026-04-28T11:32:48.9Z</time></trkpt><trkpt lat="39.5462400710153" lon="9.35523730326979"><ele>103.0</ele><time>2026-04-28T11:32:49.9Z</time></trkpt><trkpt lat="39.54624162551059" lon="9.355437411539674"><ele>102.75</ele><time>2026-04-28T11:32:50.9Z</time></trkpt><trkpt lat="39.54624031779969" lon="9.3556352112056"><ele>102.5</ele><time>2026-04-28T11:32:51.9Z</time></trkpt><trkpt lat="39.54624008225946" lon="9.355823134678628"><ele>102.25</ele><time>2026-04-28T11:32:52.9Z</time></trkpt><trkpt lat="39.546245824217394" lon="9.356003648762517"><ele>102.0</ele><time>2026-04-28T11:32:53.9Z</time></trkpt><trkpt lat="39.54625931064372" lon="9.356174329442549"><ele>102.0</ele><time>2026-04-28T11:32:54.9Z</time></trkpt><trkpt lat="39.5462885962208" lon="9.356354389275193"><ele>102.0</ele><time>2026-04-28T11:32:55.9Z</time></trkpt><trkpt lat="39.54633414268163" lon="9.356535529329932"><ele>102.0</ele><time>2026-04-28T11:32:56.9Z</time></trkpt><trkpt lat="39.54638898060173" lon="9.356714847149382"><ele>102.0</ele><time>2026-04-28T11:32:57.9Z</time></trkpt><trkpt lat="39.54644079883696" lon="9.356882867012246"><ele>102.0</ele><time>2026-04-28T11:32:58.9Z</time></trkpt><trkpt lat="39.54649216513021" lon="9.35705694849309"><ele>102.0</ele><time>2026-04-28T11:32:59.9Z</time></trkpt><trkpt lat="39.54654501600805" lon="9.357235202539005"><ele>102.0</ele><time>2026-04-28T11:33:00.9Z</time></trkpt><trkpt lat="39.546603408141536" lon="9.357410329389975"><ele>102.0</ele><time>2026-04-28T11:33:01.9Z</time></trkpt><trkpt lat="39.54665929022071" lon="9.357585841269994"><ele>102.0</ele><time>2026-04-28T11:33:02.9Z</time></trkpt><trkpt lat="39.546711871683804" lon="9.357762696946688"><ele>102.0</ele><time>2026-04-28T11:33:03.9Z</time></trkpt><trkpt lat="39.54680533992687" lon="9.357909405429526"><ele>102.0</ele><time>2026-04-28T11:33:04.9Z</time></trkpt><trkpt lat="39.54689385077956" lon="9.358056957052316"><ele>102.0</ele><time>2026-04-28T11:33:05.9Z</time></trkpt><trkpt lat="39.546997285881496" lon="9.358192788110886"><ele>100.0</ele><time>2026-04-28T11:33:06.9Z</time></trkpt><trkpt lat="39.547108890399834" lon="9.358321884721356"><ele>98.0</ele><time>2026-04-28T11:33:07.9Z</time></trkpt><trkpt lat="39.5472240671221" lon="9.358451705446292"><ele>96.0</ele><time>2026-04-28T11:33:08.9Z</time></trkpt><trkpt lat="39.547342111679995" lon="9.358588689606988"><ele>96.0</ele><time>2026-04-28T11:33:09.9Z</time></trkpt><trkpt lat="39.54745648865229" lon="9.35872444325691"><ele>96.0</ele><time>2026-04-28T11:33:10.9Z</time></trkpt><trkpt lat="39.54757628743999" lon="9.358860116664893"><ele>96.0</ele><time>2026-04-28T11:33:11.9Z</time></trkpt><trkpt lat="39.547696465274036" lon="9.358991841867423"><ele>96.0</ele><time>2026-04-28T11:33:12.9Z</time></trkpt><trkpt lat="39.54780650598034" lon="9.359113878761887"><ele>96.0</ele><time>2026-04-28T11:33:13.9Z</time></trkpt><trkpt lat="39.54790535368507" lon="9.359225994019402"><ele>96.0</ele><time>2026-04-28T11:33:14.9Z</time></trkpt><trkpt lat="39.547996373784954" lon="9.359332488180613"><ele>96.0</ele><time>2026-04-28T11:33:15.9Z</time></trkpt><trkpt lat="39.54807960966772" lon="9.359419796732645"><ele>96.19999999999999</ele><time>2026-04-28T11:33:16.9Z</time></trkpt><trkpt lat="39.54814695452708" lon="9.3595222583479"><ele>96.39999999999999</ele><time>2026-04-28T11:33:17.9Z</time></trkpt><trkpt lat="39.548221695046585" lon="9.359605627119764"><ele>96.6</ele><time>2026-04-28T11:33:18.9Z</time></trkpt><trkpt lat="39.54830269095328" lon="9.35967048417226"><ele>96.8</ele><time>2026-04-28T11:33:19.9Z</time></trkpt><trkpt lat="39.548376154922785" lon="9.359761857504182"><ele>97.0</ele><time>2026-04-28T11:33:20.9Z</time></trkpt><trkpt lat="39.548457915643304" lon="9.359858188003686"><ele>97.0</ele><time>2026-04-28T11:33:21.9Z</time></trkpt><trkpt lat="39.54854668741355" lon="9.359956377969977"><ele>97.0</ele><time>2026-04-28T11:33:22.9Z</time></trkpt><trkpt lat="39.548636779308154" lon="9.360059402360237"><ele>97.0</ele><time>2026-04-28T11:33:23.9Z</time></trkpt><trkpt lat="39.548724111190644" lon="9.360171208630996"><ele>97.0</ele><time>2026-04-28T11:33:24.9Z</time></trkpt><trkpt lat="39.548821185702074" lon="9.360280935338055"><ele>96.6</ele><time>2026-04-28T11:33:25.9Z</time></trkpt><trkpt lat="39.548911063094366" lon="9.360381059412576"><ele>96.19999999999999</ele><time>2026-04-28T11:33:26.9Z</time></trkpt><trkpt lat="39.548996160013544" lon="9.360471845955054"><ele>95.8</ele><time>2026-04-28T11:33:27.9Z</time></trkpt><trkpt lat="39.5490723371065" lon="9.360562055387103"><ele>95.4</ele><time>2026-04-28T11:33:28.9Z</time></trkpt><trkpt lat="39.5491421505618" lon="9.360647571006394"><ele>95.0</ele><time>2026-04-28T11:33:29.9Z</time></trkpt><trkpt lat="39.54920523246345" lon="9.360728228456479"><ele>95.0</ele><time>2026-04-28T11:33:30.9Z</time></trkpt><trkpt lat="39.5492524188985" lon="9.36081306134883"><ele>95.0</ele><time>2026-04-28T11:33:31.9Z</time></trkpt><trkpt lat="39.54928057459412" lon="9.36090346269328"><ele>95.0</ele><time>2026-04-28T11:33:32.898Z</time></trkpt><trkpt lat="39.54929609569128" lon="9.360993716313658"><ele>95.0</ele><time>2026-04-28T11:33:33.898Z</time></trkpt><trkpt lat="39.5493016003933" lon="9.361084616209054"><ele>95.0</ele><time>2026-04-28T11:33:34.898Z</time></trkpt><trkpt lat="39.54930995306472" lon="9.361178724477666"><ele>95.0</ele><time>2026-04-28T11:33:35.898Z</time></trkpt><trkpt lat="39.5493286379883" lon="9.361282387252873"><ele>95.2</ele><time>2026-04-28T11:33:36.899Z</time></trkpt><trkpt lat="39.54934530085924" lon="9.361384431571244"><ele>95.4</ele><time>2026-04-28T11:33:37.899Z</time></trkpt><trkpt lat="39.54935844987468" lon="9.361477263676639"><ele>95.6</ele><time>2026-04-28T11:33:38.899Z</time></trkpt><trkpt lat="39.549380826569" lon="9.361625332610092"><ele>95.8</ele><time>2026-04-28T11:33:40.898Z</time></trkpt><trkpt lat="39.54937850875001" lon="9.361774742490871"><ele>96.0</ele><time>2026-04-28T11:33:42.898Z</time></trkpt><trkpt lat="39.54938341478779" lon="9.361858760459278"><ele>96.0</ele><time>2026-04-28T11:33:43.898Z</time></trkpt><trkpt lat="39.54938421577417" lon="9.361960407258444"><ele>96.0</ele><time>2026-04-28T11:33:44.898Z</time></trkpt><trkpt lat="39.549373934921505" lon="9.362064245581909"><ele>96.0</ele><time>2026-04-28T11:33:45.898Z</time></trkpt><trkpt lat="39.54936329602491" lon="9.362167984339768"><ele>96.0</ele><time>2026-04-28T11:33:46.898Z</time></trkpt><trkpt lat="39.5493514862392" lon="9.362262278235928"><ele>96.0</ele><time>2026-04-28T11:33:47.898Z</time></trkpt><trkpt lat="39.549329739837425" lon="9.362360105618217"><ele>96.0</ele><time>2026-04-28T11:33:49.898Z</time></trkpt><trkpt lat="39.54926939369116" lon="9.362447337666646"><ele>96.0</ele><time>2026-04-28T11:33:52.898Z</time></trkpt><trkpt lat="39.549218679367385" lon="9.362500015473916"><ele>96.0</ele><time>2026-04-28T11:33:54.898Z</time></trkpt><trkpt lat="39.54928019995291" lon="9.362463479879668"><ele>96.0</ele><time>2026-04-28T11:34:21.899Z</time></trkpt><trkpt lat="39.54933950276213" lon="9.362319726271146"><ele>96.0</ele><time>2026-04-28T11:34:33.899Z</time></trkpt><trkpt lat="39.54943605667801" lon="9.36241047971629"><ele>96.0</ele><time>2026-04-28T11:34:35.899Z</time></trkpt><trkpt lat="39.54941595346092" lon="9.36183150727392"><ele>96.0</ele><time>2026-04-28T11:34:39.899Z</time></trkpt><trkpt lat="39.54940559220383" lon="9.361731418600876"><ele>96.0</ele><time>2026-04-28T11:34:40.899Z</time></trkpt><trkpt lat="39.549395391856535" lon="9.361628316779072"><ele>96.0</ele><time>2026-04-28T11:34:41.899Z</time></trkpt><trkpt lat="39.54938899870512" lon="9.361521073709618"><ele>96.0</ele><time>2026-04-28T11:34:42.899Z</time></trkpt><trkpt lat="39.5493794487221" lon="9.361412069501023"><ele>96.0</ele><time>2026-04-28T11:34:43.899Z</time></trkpt><trkpt lat="39.549363265248985" lon="9.361297349288233"><ele>96.0</ele><time>2026-04-28T11:34:44.899Z</time></trkpt><trkpt lat="39.54934842877429" lon="9.361196752957255"><ele>96.0</ele><time>2026-04-28T11:34:45.899Z</time></trkpt><trkpt lat="39.54933040207769" lon="9.361102726383496"><ele>96.0</ele><time>2026-04-28T11:34:46.899Z</time></trkpt><trkpt lat="39.549319898520665" lon="9.360977315656868"><ele>96.0</ele><time>2026-04-28T11:34:48.899Z</time></trkpt><trkpt lat="39.54933425153965" lon="9.361123715014086"><ele>96.0</ele><time>2026-04-28T11:36:54.899Z</time></trkpt><trkpt lat="39.549356705122534" lon="9.36123204106183"><ele>96.0</ele><time>2026-04-28T11:36:55.899Z</time></trkpt><trkpt lat="39.549328661545445" lon="9.361317614891384"><ele>96.0</ele><time>2026-04-28T11:36:56.9Z</time></trkpt><trkpt lat="39.54934546612156" lon="9.361455269732406"><ele>96.0</ele><time>2026-04-28T11:36:58.9Z</time></trkpt><trkpt lat="39.54935719882312" lon="9.361556454390389"><ele>96.0</ele><time>2026-04-28T11:37:00.9Z</time></trkpt><trkpt lat="39.5493415406966" lon="9.36142141635087"><ele>96.0</ele><time>2026-04-28T11:39:21.915Z</time></trkpt><trkpt lat="39.549323028189" lon="9.361277065887432"><ele>96.0</ele><time>2026-04-28T11:39:23.915Z</time></trkpt><trkpt lat="39.54942210429877" lon="9.361493311781455"><ele>95.66666666666667</ele><time>2026-04-28T11:39:24.915Z</time></trkpt><trkpt lat="39.54933883675805" lon="9.361043449308543"><ele>95.33333333333334</ele><time>2026-04-28T11:39:25.915Z</time></trkpt><trkpt lat="39.54932691363201" lon="9.36095997782409"><ele>95.0</ele><time>2026-04-28T11:39:26.915Z</time></trkpt><trkpt lat="39.549312353692166" lon="9.360874490081907"><ele>95.0</ele><time>2026-04-28T11:39:27.915Z</time></trkpt><trkpt lat="39.54928016543346" lon="9.360792386115387"><ele>95.0</ele><time>2026-04-28T11:39:28.915Z</time></trkpt><trkpt lat="39.549243281227135" lon="9.360714986060403"><ele>95.0</ele><time>2026-04-28T11:39:29.915Z</time></trkpt><trkpt lat="39.54918788269363" lon="9.360647935939484"><ele>95.0</ele><time>2026-04-28T11:39:30.915Z</time></trkpt><trkpt lat="39.54912877064188" lon="9.360584552152206"><ele>95.0</ele><time>2026-04-28T11:39:31.915Z</time></trkpt><trkpt lat="39.54907231656233" lon="9.360515343216493"><ele>95.0</ele><time>2026-04-28T11:39:32.915Z</time></trkpt><trkpt lat="39.54901670329377" lon="9.360447769691284"><ele>95.0</ele><time>2026-04-28T11:39:33.915Z</time></trkpt><trkpt lat="39.548957818572475" lon="9.360384397871465"><ele>94.66666666666667</ele><time>2026-04-28T11:39:34.915Z</time></trkpt><trkpt lat="39.54889861982252" lon="9.36031496874005"><ele>94.33333333333334</ele><time>2026-04-28T11:39:35.915Z</time></trkpt><trkpt lat="39.548841366796616" lon="9.360245653504842"><ele>94.0</ele><time>2026-04-28T11:39:36.916Z</time></trkpt><trkpt lat="39.54878050387042" lon="9.36017570948456"><ele>93.66666666666667</ele><time>2026-04-28T11:39:37.916Z</time></trkpt><trkpt lat="39.54871773111123" lon="9.36010381873087"><ele>93.33333333333333</ele><time>2026-04-28T11:39:38.916Z</time></trkpt><trkpt lat="39.54865543121308" lon="9.36003441115933"><ele>93.0</ele><time>2026-04-28T11:39:39.916Z</time></trkpt><trkpt lat="39.54859284468471" lon="9.359966362973593"><ele>93.16666666666667</ele><time>2026-04-28T11:39:40.916Z</time></trkpt><trkpt lat="39.54853139783131" lon="9.359897790028645"><ele>93.33333333333333</ele><time>2026-04-28T11:39:41.916Z</time></trkpt><trkpt lat="39.54846748362092" lon="9.359829979433826"><ele>93.5</ele><time>2026-04-28T11:39:42.916Z</time></trkpt><trkpt lat="39.54840785126423" lon="9.359760183608007"><ele>93.66666666666666</ele><time>2026-04-28T11:39:43.916Z</time></trkpt><trkpt lat="39.548350607370494" lon="9.359688757434693"><ele>93.83333333333333</ele><time>2026-04-28T11:39:44.916Z</time></trkpt><trkpt lat="39.54829681244594" lon="9.359625084231357"><ele>94.0</ele><time>2026-04-28T11:39:45.916Z</time></trkpt><trkpt lat="39.5482457664166" lon="9.359565287770467"><ele>94.0</ele><time>2026-04-28T11:39:46.916Z</time></trkpt><trkpt lat="39.548166751795776" lon="9.359487467386936"><ele>94.0</ele><time>2026-04-28T11:39:48.916Z</time></trkpt><trkpt lat="39.548049519956585" lon="9.359533972724135"><ele>94.0</ele><time>2026-04-28T11:39:51.914Z</time></trkpt><trkpt lat="39.548015927143915" lon="9.359625240510587"><ele>94.0</ele><time>2026-04-28T11:39:54.914Z</time></trkpt><trkpt lat="39.547965146051844" lon="9.3596778131252"><ele>94.0</ele><time>2026-04-28T11:39:56.914Z</time></trkpt><trkpt lat="39.547991467493425" lon="9.359559029911212"><ele>94.0</ele><time>2026-04-28T11:40:08.914Z</time></trkpt><trkpt lat="39.54803922056984" lon="9.35948803361446"><ele>94.0</ele><time>2026-04-28T11:40:10.914Z</time></trkpt><trkpt lat="39.54799887066298" lon="9.359551644004101"><ele>94.0</ele><time>2026-04-28T11:40:42.915Z</time></trkpt><trkpt lat="39.54806189689922" lon="9.35960406980819"><ele>94.0</ele><time>2026-04-28T11:47:42.917Z</time></trkpt><trkpt lat="39.548006867104114" lon="9.359546724859307"><ele>94.0</ele><time>2026-04-28T12:17:25.885Z</time></trkpt><trkpt lat="39.54804216818019" lon="9.359651838546066"><ele>94.0</ele><time>2026-04-28T12:36:11.914Z</time></trkpt><trkpt lat="39.54811840489582" lon="9.359658787983305"><ele>94.0</ele><time>2026-04-28T12:54:51.933Z</time></trkpt><trkpt lat="39.5481886114277" lon="9.359715005745977"><ele>94.5</ele><time>2026-04-28T12:54:57.934Z</time></trkpt><trkpt lat="39.548298579429385" lon="9.359776429319014"><ele>95.0</ele><time>2026-04-28T12:55:03.937Z</time></trkpt><trkpt lat="39.54834954040679" lon="9.35984230742092"><ele>95.5</ele><time>2026-04-28T12:55:04.937Z</time></trkpt><trkpt lat="39.5484174997494" lon="9.35988687815702"><ele>96.0</ele><time>2026-04-28T12:55:05.938Z</time></trkpt><trkpt lat="39.54848362977636" lon="9.359941482174813"><ele>96.50000000000001</ele><time>2026-04-28T12:55:06.938Z</time></trkpt><trkpt lat="39.548541260732506" lon="9.360003555268191"><ele>97.0</ele><time>2026-04-28T12:55:07.938Z</time></trkpt><trkpt lat="39.54859140052682" lon="9.360064280847196"><ele>97.0</ele><time>2026-04-28T12:55:08.938Z</time></trkpt><trkpt lat="39.54866296489658" lon="9.360143367031828"><ele>97.0</ele><time>2026-04-28T12:55:09.939Z</time></trkpt><trkpt lat="39.548739025103686" lon="9.360227151750053"><ele>97.0</ele><time>2026-04-28T12:55:10.939Z</time></trkpt><trkpt lat="39.548815710011894" lon="9.360312376434251"><ele>97.0</ele><time>2026-04-28T12:55:11.939Z</time></trkpt><trkpt lat="39.54890089777815" lon="9.360399233282969"><ele>97.0</ele><time>2026-04-28T12:55:12.939Z</time></trkpt><trkpt lat="39.54898080920509" lon="9.36048533434959"><ele>96.6</ele><time>2026-04-28T12:55:13.939Z</time></trkpt><trkpt lat="39.549074301597194" lon="9.360563163657837"><ele>96.19999999999999</ele><time>2026-04-28T12:55:14.94Z</time></trkpt><trkpt lat="39.54914623585963" lon="9.36065773450972"><ele>95.8</ele><time>2026-04-28T12:55:15.94Z</time></trkpt><trkpt lat="39.54919806344212" lon="9.360744341893641"><ele>95.4</ele><time>2026-04-28T12:55:16.94Z</time></trkpt><trkpt lat="39.549243702056394" lon="9.3608215347785"><ele>95.0</ele><time>2026-04-28T12:55:17.94Z</time></trkpt><trkpt lat="39.54927575199936" lon="9.360925116055366"><ele>95.0</ele><time>2026-04-28T12:55:18.94Z</time></trkpt><trkpt lat="39.54929346602356" lon="9.361059759500582"><ele>95.0</ele><time>2026-04-28T12:55:19.94Z</time></trkpt><trkpt lat="39.54930383131529" lon="9.36119225670308"><ele>95.0</ele><time>2026-04-28T12:55:20.941Z</time></trkpt><trkpt lat="39.54932108863547" lon="9.361327497580705"><ele>95.0</ele><time>2026-04-28T12:55:21.941Z</time></trkpt><trkpt lat="39.54933906478364" lon="9.361457128297973"><ele>95.0</ele><time>2026-04-28T12:55:22.941Z</time></trkpt><trkpt lat="39.54935689816558" lon="9.361579844437376"><ele>95.2</ele><time>2026-04-28T12:55:23.939Z</time></trkpt><trkpt lat="39.54937893082206" lon="9.36170281490233"><ele>95.4</ele><time>2026-04-28T12:55:24.939Z</time></trkpt><trkpt lat="39.54937055479662" lon="9.361823475690521"><ele>95.6</ele><time>2026-04-28T12:55:25.939Z</time></trkpt><trkpt lat="39.54937205158677" lon="9.36195319932709"><ele>95.8</ele><time>2026-04-28T12:55:26.94Z</time></trkpt><trkpt lat="39.54935471646332" lon="9.362087559998413"><ele>96.0</ele><time>2026-04-28T12:55:27.939Z</time></trkpt><trkpt lat="39.549364313816504" lon="9.362204520017364"><ele>96.5</ele><time>2026-04-28T12:55:28.939Z</time></trkpt><trkpt lat="39.54936394741082" lon="9.362293577976505"><ele>97.0</ele><time>2026-04-28T12:55:29.94Z</time></trkpt><trkpt lat="39.54932789719307" lon="9.362368640238127"><ele>97.5</ele><time>2026-04-28T12:55:30.94Z</time></trkpt><trkpt lat="39.549409406968664" lon="9.362420643318172"><ele>98.0</ele><time>2026-04-28T12:55:31.94Z</time></trkpt><trkpt lat="39.54951755435379" lon="9.362430053860967"><ele>98.5</ele><time>2026-04-28T12:55:33.94Z</time></trkpt><trkpt lat="39.54959475065631" lon="9.362409152493097"><ele>99.0</ele><time>2026-04-28T12:55:34.94Z</time></trkpt><trkpt lat="39.54968993827029" lon="9.362377568292015"><ele>97.4</ele><time>2026-04-28T12:55:35.94Z</time></trkpt><trkpt lat="39.54980184395321" lon="9.362328771851583"><ele>95.80000000000001</ele><time>2026-04-28T12:55:36.94Z</time></trkpt><trkpt lat="39.54990482506813" lon="9.362284586273804"><ele>94.19999999999999</ele><time>2026-04-28T12:55:37.94Z</time></trkpt><trkpt lat="39.549992319623" lon="9.362243322261028"><ele>92.6</ele><time>2026-04-28T12:55:38.94Z</time></trkpt><trkpt lat="39.550073230027714" lon="9.362200310829474"><ele>91.0</ele><time>2026-04-28T12:55:39.94Z</time></trkpt><trkpt lat="39.550158058619964" lon="9.362157220260963"><ele>90.8</ele><time>2026-04-28T12:55:40.941Z</time></trkpt><trkpt lat="39.55024744740026" lon="9.362110974577474"><ele>90.6</ele><time>2026-04-28T12:55:41.941Z</time></trkpt><trkpt lat="39.55033183258926" lon="9.362066318892051"><ele>90.4</ele><time>2026-04-28T12:55:42.941Z</time></trkpt><trkpt lat="39.550423768556485" lon="9.362029193830676"><ele>90.2</ele><time>2026-04-28T12:55:43.941Z</time></trkpt><trkpt lat="39.5505129549317" lon="9.361966499921191"><ele>90.0</ele><time>2026-04-28T12:55:44.941Z</time></trkpt><trkpt lat="39.55059910863587" lon="9.361891236243261"><ele>89.6</ele><time>2026-04-28T12:55:45.941Z</time></trkpt><trkpt lat="39.55067394338231" lon="9.361794396170678"><ele>89.2</ele><time>2026-04-28T12:55:46.941Z</time></trkpt><trkpt lat="39.55074404278462" lon="9.361690472402463"><ele>88.80000000000001</ele><time>2026-04-28T12:55:47.941Z</time></trkpt><trkpt lat="39.55081683965077" lon="9.361572372702618"><ele>88.4</ele><time>2026-04-28T12:55:48.941Z</time></trkpt><trkpt lat="39.55088947262347" lon="9.361456487561586"><ele>88.0</ele><time>2026-04-28T12:55:49.941Z</time></trkpt><trkpt lat="39.5509619466744" lon="9.361342138327318"><ele>88.0</ele><time>2026-04-28T12:55:50.941Z</time></trkpt><trkpt lat="39.55103328925854" lon="9.361224804386755"><ele>88.0</ele><time>2026-04-28T12:55:51.941Z</time></trkpt><trkpt lat="39.551108856723104" lon="9.361103253087549"><ele>88.0</ele><time>2026-04-28T12:55:52.941Z</time></trkpt><trkpt lat="39.55118520416178" lon="9.36096235352027"><ele>88.0</ele><time>2026-04-28T12:55:53.941Z</time></trkpt><trkpt lat="39.55126291947173" lon="9.36083204938681"><ele>87.5</ele><time>2026-04-28T12:55:54.941Z</time></trkpt><trkpt lat="39.551332071065566" lon="9.360703330967048"><ele>87.0</ele><time>2026-04-28T12:55:55.941Z</time></trkpt><trkpt lat="39.55139733195621" lon="9.36056733828236"><ele>86.5</ele><time>2026-04-28T12:55:56.941Z</time></trkpt><trkpt lat="39.55146917643955" lon="9.360430397588276"><ele>86.0</ele><time>2026-04-28T12:55:57.941Z</time></trkpt><trkpt lat="39.55150242252798" lon="9.360268448326138"><ele>86.0</ele><time>2026-04-28T12:55:58.941Z</time></trkpt><trkpt lat="39.551555506003474" lon="9.360102943735397"><ele>86.0</ele><time>2026-04-28T12:55:59.941Z</time></trkpt><trkpt lat="39.5516085199761" lon="9.359929586746146"><ele>86.0</ele><time>2026-04-28T12:56:00.941Z</time></trkpt><trkpt lat="39.55165742792235" lon="9.359754768808104"><ele>86.0</ele><time>2026-04-28T12:56:01.941Z</time></trkpt><trkpt lat="39.55172385135327" lon="9.359566813833617"><ele>86.0</ele><time>2026-04-28T12:56:02.941Z</time></trkpt><trkpt lat="39.55179833371412" lon="9.359366422019566"><ele>86.0</ele><time>2026-04-28T12:56:03.941Z</time></trkpt><trkpt lat="39.551873553976606" lon="9.359161987460375"><ele>86.0</ele><time>2026-04-28T12:56:04.941Z</time></trkpt><trkpt lat="39.551929813815505" lon="9.358949164178291"><ele>86.33333333333334</ele><time>2026-04-28T12:56:05.941Z</time></trkpt><trkpt lat="39.552004088006115" lon="9.358722018606068"><ele>86.66666666666667</ele><time>2026-04-28T12:56:06.941Z</time></trkpt><trkpt lat="39.55207300523507" lon="9.35850511845655"><ele>87.0</ele><time>2026-04-28T12:56:07.941Z</time></trkpt><trkpt lat="39.55214710471988" lon="9.358282266620536"><ele>86.33333333333333</ele><time>2026-04-28T12:56:08.941Z</time></trkpt><trkpt lat="39.55221768780556" lon="9.35806346690768"><ele>85.66666666666666</ele><time>2026-04-28T12:56:09.941Z</time></trkpt><trkpt lat="39.55228610248049" lon="9.357847128670313"><ele>85.0</ele><time>2026-04-28T12:56:10.942Z</time></trkpt><trkpt lat="39.55235950098867" lon="9.3576183082966"><ele>85.0</ele><time>2026-04-28T12:56:11.942Z</time></trkpt><trkpt lat="39.55243434805573" lon="9.357388339850461"><ele>85.0</ele><time>2026-04-28T12:56:12.942Z</time></trkpt><trkpt lat="39.552508065224536" lon="9.357168478937965"><ele>85.0</ele><time>2026-04-28T12:56:13.942Z</time></trkpt><trkpt lat="39.55258057569845" lon="9.35694435618938"><ele>85.0</ele><time>2026-04-28T12:56:14.942Z</time></trkpt><trkpt lat="39.552655006491875" lon="9.356709140615395"><ele>85.0</ele><time>2026-04-28T12:56:15.942Z</time></trkpt><trkpt lat="39.552730609319454" lon="9.356472691092488"><ele>85.0</ele><time>2026-04-28T12:56:16.942Z</time></trkpt><trkpt lat="39.55280677953814" lon="9.356233404914574"><ele>85.33333333333333</ele><time>2026-04-28T12:56:17.942Z</time></trkpt><trkpt lat="39.552882629031224" lon="9.355995414875657"><ele>85.66666666666667</ele><time>2026-04-28T12:56:18.942Z</time></trkpt><trkpt lat="39.55295530140771" lon="9.355754417721455"><ele>86.0</ele><time>2026-04-28T12:56:19.942Z</time></trkpt><trkpt lat="39.55303534052173" lon="9.355510446573579"><ele>85.0</ele><time>2026-04-28T12:56:20.942Z</time></trkpt><trkpt lat="39.55311664309973" lon="9.35527057277282"><ele>84.0</ele><time>2026-04-28T12:56:21.942Z</time></trkpt><trkpt lat="39.55319122573918" lon="9.355019121724046"><ele>83.0</ele><time>2026-04-28T12:56:22.942Z</time></trkpt><trkpt lat="39.55327043694404" lon="9.35477273782884"><ele>84.0</ele><time>2026-04-28T12:56:23.942Z</time></trkpt><trkpt lat="39.55335230243395" lon="9.354518125008997"><ele>85.0</ele><time>2026-04-28T12:56:24.942Z</time></trkpt><trkpt lat="39.55343729835146" lon="9.354259692999321"><ele>86.0</ele><time>2026-04-28T12:56:25.942Z</time></trkpt><trkpt lat="39.55351957362907" lon="9.354026101898254"><ele>85.75</ele><time>2026-04-28T12:56:26.942Z</time></trkpt><trkpt lat="39.55358213776744" lon="9.353824523045098"><ele>85.5</ele><time>2026-04-28T12:56:27.942Z</time></trkpt><trkpt lat="39.55362919241663" lon="9.353664096611736"><ele>85.25</ele><time>2026-04-28T12:56:28.942Z</time></trkpt><trkpt lat="39.55367198423835" lon="9.353559608180229"><ele>85.0</ele><time>2026-04-28T12:56:29.942Z</time></trkpt><trkpt lat="39.55371681824456" lon="9.353488598064255"><ele>85.0</ele><time>2026-04-28T12:56:30.942Z</time></trkpt><trkpt lat="39.553795552514494" lon="9.353470096324992"><ele>85.0</ele><time>2026-04-28T12:56:31.942Z</time></trkpt><trkpt lat="39.55387078470911" lon="9.353438791828555"><ele>85.0</ele><time>2026-04-28T12:56:32.942Z</time></trkpt><trkpt lat="39.553955112708366" lon="9.353439796721494"><ele>85.0</ele><time>2026-04-28T12:56:33.942Z</time></trkpt><trkpt lat="39.554049063197255" lon="9.353474094384655"><ele>85.0</ele><time>2026-04-28T12:56:34.942Z</time></trkpt><trkpt lat="39.55415512694527" lon="9.353527873111783"><ele>85.0</ele><time>2026-04-28T12:56:35.942Z</time></trkpt><trkpt lat="39.55427657904859" lon="9.35358642724696"><ele>85.0</ele><time>2026-04-28T12:56:36.942Z</time></trkpt><trkpt lat="39.5544146015902" lon="9.353650879381302"><ele>85.0</ele><time>2026-04-28T12:56:37.942Z</time></trkpt><trkpt lat="39.55456281818913" lon="9.353715361377812"><ele>85.0</ele><time>2026-04-28T12:56:38.942Z</time></trkpt><trkpt lat="39.5547159843395" lon="9.353782935763052"><ele>84.66666666666666</ele><time>2026-04-28T12:56:39.942Z</time></trkpt><trkpt lat="39.55486636001056" lon="9.353849980205315"><ele>84.33333333333333</ele><time>2026-04-28T12:56:40.942Z</time></trkpt><trkpt lat="39.555016875589345" lon="9.35391535220173"><ele>84.0</ele><time>2026-04-28T12:56:41.942Z</time></trkpt><trkpt lat="39.55516366077343" lon="9.353979675006869"><ele>83.75</ele><time>2026-04-28T12:56:42.942Z</time></trkpt><trkpt lat="39.55529792498904" lon="9.354031461244926"><ele>83.5</ele><time>2026-04-28T12:56:43.942Z</time></trkpt><trkpt lat="39.55542272007052" lon="9.354069312054653"><ele>83.25</ele><time>2026-04-28T12:56:44.942Z</time></trkpt><trkpt lat="39.55553016921192" lon="9.354077564909582"><ele>83.0</ele><time>2026-04-28T12:56:45.942Z</time></trkpt><trkpt lat="39.55563325024446" lon="9.354062571536574"><ele>83.5</ele><time>2026-04-28T12:56:46.942Z</time></trkpt><trkpt lat="39.55573697830564" lon="9.354012528453532"><ele>84.0</ele><time>2026-04-28T12:56:47.942Z</time></trkpt><trkpt lat="39.555836973834914" lon="9.353937801464296"><ele>84.5</ele><time>2026-04-28T12:56:48.942Z</time></trkpt><trkpt lat="39.55592794004339" lon="9.353840277642128"><ele>85.0</ele><time>2026-04-28T12:56:49.942Z</time></trkpt><trkpt lat="39.55600755380459" lon="9.353714757877942"><ele>85.0</ele><time>2026-04-28T12:56:50.942Z</time></trkpt><trkpt lat="39.55608319917694" lon="9.353560860678877"><ele>85.0</ele><time>2026-04-28T12:56:51.942Z</time></trkpt><trkpt lat="39.55616180857661" lon="9.353397525595824"><ele>85.0</ele><time>2026-04-28T12:56:52.942Z</time></trkpt><trkpt lat="39.55623916903938" lon="9.353229763952555"><ele>85.0</ele><time>2026-04-28T12:56:53.942Z</time></trkpt><trkpt lat="39.55632460044919" lon="9.353069562197708"><ele>86.0</ele><time>2026-04-28T12:56:54.942Z</time></trkpt><trkpt lat="39.556421697338024" lon="9.352920072007036"><ele>87.0</ele><time>2026-04-28T12:56:55.942Z</time></trkpt><trkpt lat="39.556537590695065" lon="9.352797806102437"><ele>88.0</ele><time>2026-04-28T12:56:56.942Z</time></trkpt><trkpt lat="39.5566620781115" lon="9.352687232197736"><ele>88.0</ele><time>2026-04-28T12:56:57.942Z</time></trkpt><trkpt lat="39.55680666453476" lon="9.352593185023714"><ele>88.0</ele><time>2026-04-28T12:56:58.942Z</time></trkpt><trkpt lat="39.55695589872517" lon="9.35249916508578"><ele>88.0</ele><time>2026-04-28T12:56:59.943Z</time></trkpt><trkpt lat="39.55711616225924" lon="9.352403017355718"><ele>88.0</ele><time>2026-04-28T12:57:00.943Z</time></trkpt><trkpt lat="39.55728007782257" lon="9.352301716028682"><ele>88.0</ele><time>2026-04-28T12:57:01.943Z</time></trkpt><trkpt lat="39.55744592635233" lon="9.352193371399867"><ele>88.0</ele><time>2026-04-28T12:57:02.943Z</time></trkpt><trkpt lat="39.557621342183666" lon="9.352077327516096"><ele>88.0</ele><time>2026-04-28T12:57:03.943Z</time></trkpt><trkpt lat="39.55779853116632" lon="9.351963422081676"><ele>88.0</ele><time>2026-04-28T12:57:04.943Z</time></trkpt><trkpt lat="39.557979566039755" lon="9.3518395970431"><ele>88.0</ele><time>2026-04-28T12:57:05.943Z</time></trkpt><trkpt lat="39.55816073666177" lon="9.351714006749452"><ele>88.33333333333333</ele><time>2026-04-28T12:57:06.943Z</time></trkpt><trkpt lat="39.55834623026651" lon="9.351592580295153"><ele>88.66666666666667</ele><time>2026-04-28T12:57:07.943Z</time></trkpt><trkpt lat="39.55852725227962" lon="9.35147102067182"><ele>89.0</ele><time>2026-04-28T12:57:08.943Z</time></trkpt><trkpt lat="39.55871084962482" lon="9.351347097368187"><ele>89.33333333333334</ele><time>2026-04-28T12:57:09.943Z</time></trkpt><trkpt lat="39.55889555498272" lon="9.351229477486967"><ele>89.66666666666667</ele><time>2026-04-28T12:57:10.943Z</time></trkpt><trkpt lat="39.55908251647642" lon="9.351106738645509"><ele>90.0</ele><time>2026-04-28T12:57:11.943Z</time></trkpt><trkpt lat="39.559271671361195" lon="9.350988461757192"><ele>90.0</ele><time>2026-04-28T12:57:12.943Z</time></trkpt><trkpt lat="39.55946427847782" lon="9.350861636065895"><ele>90.0</ele><time>2026-04-28T12:57:13.943Z</time></trkpt><trkpt lat="39.55965599040817" lon="9.350736291114597"><ele>90.0</ele><time>2026-04-28T12:57:14.943Z</time></trkpt><trkpt lat="39.55984746521303" lon="9.350606229683176"><ele>89.66666666666667</ele><time>2026-04-28T12:57:15.943Z</time></trkpt><trkpt lat="39.56004005462049" lon="9.350488003094574"><ele>89.33333333333334</ele><time>2026-04-28T12:57:16.943Z</time></trkpt><trkpt lat="39.560234626700854" lon="9.350361576334"><ele>89.0</ele><time>2026-04-28T12:57:17.943Z</time></trkpt><trkpt lat="39.56042486409796" lon="9.350231969676651"><ele>89.0</ele><time>2026-04-28T12:57:18.943Z</time></trkpt><trkpt lat="39.560610420105924" lon="9.350112616657215"><ele>89.0</ele><time>2026-04-28T12:57:19.943Z</time></trkpt><trkpt lat="39.56077851532003" lon="9.350012084205733"><ele>89.0</ele><time>2026-04-28T12:57:20.943Z</time></trkpt><trkpt lat="39.56094048378625" lon="9.349934276739095"><ele>89.0</ele><time>2026-04-28T12:57:21.943Z</time></trkpt><trkpt lat="39.561097692440825" lon="9.349888277079838"><ele>89.0</ele><time>2026-04-28T12:57:22.943Z</time></trkpt><trkpt lat="39.56125977035355" lon="9.34987186128686"><ele>89.0</ele><time>2026-04-28T12:57:23.943Z</time></trkpt><trkpt lat="39.561428728415784" lon="9.349872005628285"><ele>89.0</ele><time>2026-04-28T12:57:24.943Z</time></trkpt><trkpt lat="39.5616154946506" lon="9.349893412812632"><ele>89.0</ele><time>2026-04-28T12:57:25.943Z</time></trkpt><trkpt lat="39.561812100957724" lon="9.349905315187812"><ele>89.0</ele><time>2026-04-28T12:57:26.943Z</time></trkpt><trkpt lat="39.562013460749775" lon="9.3499141187825"><ele>90.33333333333334</ele><time>2026-04-28T12:57:27.943Z</time></trkpt><trkpt lat="39.56221626251146" lon="9.349923995769638"><ele>91.66666666666667</ele><time>2026-04-28T12:57:28.943Z</time></trkpt><trkpt lat="39.562423543215615" lon="9.349931829944815"><ele>93.0</ele><time>2026-04-28T12:57:29.941Z</time></trkpt><trkpt lat="39.562631031530366" lon="9.349933146140561"><ele>93.0</ele><time>2026-04-28T12:57:30.941Z</time></trkpt><trkpt lat="39.56284600009961" lon="9.349939847880407"><ele>93.0</ele><time>2026-04-28T12:57:31.941Z</time></trkpt><trkpt lat="39.56305955735732" lon="9.349950848784074"><ele>93.0</ele><time>2026-04-28T12:57:32.941Z</time></trkpt><trkpt lat="39.563276408679336" lon="9.349959215897844"><ele>93.66666666666667</ele><time>2026-04-28T12:57:33.94Z</time></trkpt><trkpt lat="39.56349556710147" lon="9.349964342446475"><ele>94.33333333333334</ele><time>2026-04-28T12:57:34.94Z</time></trkpt><trkpt lat="39.563721053112914" lon="9.349974107227897"><ele>95.0</ele><time>2026-04-28T12:57:35.941Z</time></trkpt><trkpt lat="39.56394905392547" lon="9.349982731232247"><ele>96.0</ele><time>2026-04-28T12:57:36.941Z</time></trkpt><trkpt lat="39.56417807408601" lon="9.349990882810912"><ele>97.0</ele><time>2026-04-28T12:57:37.941Z</time></trkpt><trkpt lat="39.56440722642564" lon="9.34999711992456"><ele>97.66666666666667</ele><time>2026-04-28T12:57:38.941Z</time></trkpt><trkpt lat="39.56462776532016" lon="9.350006537598679"><ele>98.33333333333334</ele><time>2026-04-28T12:57:39.94Z</time></trkpt><trkpt lat="39.56485039196716" lon="9.350013011508116"><ele>99.0</ele><time>2026-04-28T12:57:40.94Z</time></trkpt><trkpt lat="39.56506905676275" lon="9.350020407645697"><ele>99.0</ele><time>2026-04-28T12:57:41.941Z</time></trkpt><trkpt lat="39.565283084269716" lon="9.350027585142765"><ele>99.0</ele><time>2026-04-28T12:57:42.94Z</time></trkpt><trkpt lat="39.56549791168626" lon="9.35003554723063"><ele>99.0</ele><time>2026-04-28T12:57:43.94Z</time></trkpt><trkpt lat="39.565704493876304" lon="9.350042084350827"><ele>100.33333333333334</ele><time>2026-04-28T12:57:44.94Z</time></trkpt><trkpt lat="39.565896933264746" lon="9.35004974223721"><ele>101.66666666666667</ele><time>2026-04-28T12:57:45.94Z</time></trkpt><trkpt lat="39.56609159612777" lon="9.350043124412082"><ele>103.0</ele><time>2026-04-28T12:57:46.94Z</time></trkpt><trkpt lat="39.56626948596432" lon="9.350021828907924"><ele>104.0</ele><time>2026-04-28T12:57:47.94Z</time></trkpt><trkpt lat="39.566445207343534" lon="9.34997388099955"><ele>105.0</ele><time>2026-04-28T12:57:48.94Z</time></trkpt><trkpt lat="39.56660922344343" lon="9.349904120499925"><ele>106.0</ele><time>2026-04-28T12:57:49.94Z</time></trkpt><trkpt lat="39.56678266377965" lon="9.349818587253532"><ele>106.0</ele><time>2026-04-28T12:57:50.94Z</time></trkpt><trkpt lat="39.566954409716175" lon="9.34973088265095"><ele>106.0</ele><time>2026-04-28T12:57:51.94Z</time></trkpt><trkpt lat="39.56713629430394" lon="9.349646776267768"><ele>106.0</ele><time>2026-04-28T12:57:52.94Z</time></trkpt><trkpt lat="39.56732456583708" lon="9.349566190772139"><ele>107.0</ele><time>2026-04-28T12:57:53.94Z</time></trkpt><trkpt lat="39.567512653287764" lon="9.349480763423005"><ele>108.0</ele><time>2026-04-28T12:57:54.94Z</time></trkpt><trkpt lat="39.56769800988538" lon="9.349379946597757"><ele>109.0</ele><time>2026-04-28T12:57:55.94Z</time></trkpt><trkpt lat="39.56788016502063" lon="9.349273118419484"><ele>112.33333333333334</ele><time>2026-04-28T12:57:56.94Z</time></trkpt><trkpt lat="39.568056731402685" lon="9.34916486040153"><ele>115.66666666666666</ele><time>2026-04-28T12:57:57.941Z</time></trkpt><trkpt lat="39.56822941011999" lon="9.349062291095368"><ele>119.0</ele><time>2026-04-28T12:57:58.941Z</time></trkpt><trkpt lat="39.56839846340948" lon="9.348967784251974"><ele>119.0</ele><time>2026-04-28T12:57:59.941Z</time></trkpt><trkpt lat="39.56856274018826" lon="9.348891655308238"><ele>119.0</ele><time>2026-04-28T12:58:00.941Z</time></trkpt><trkpt lat="39.56872353145525" lon="9.348839239468711"><ele>119.0</ele><time>2026-04-28T12:58:01.941Z</time></trkpt><trkpt lat="39.568883561984784" lon="9.348799004528045"><ele>120.33333333333333</ele><time>2026-04-28T12:58:02.941Z</time></trkpt><trkpt lat="39.569054620578974" lon="9.348785961005472"><ele>121.66666666666666</ele><time>2026-04-28T12:58:03.941Z</time></trkpt><trkpt lat="39.56923646282335" lon="9.34877940536507"><ele>123.0</ele><time>2026-04-28T12:58:04.941Z</time></trkpt><trkpt lat="39.569415925794594" lon="9.348789131783414"><ele>124.33333333333334</ele><time>2026-04-28T12:58:05.941Z</time></trkpt><trkpt lat="39.56960119063026" lon="9.348807463871601"><ele>125.66666666666667</ele><time>2026-04-28T12:58:06.941Z</time></trkpt><trkpt lat="39.569795964204715" lon="9.34884201854057"><ele>127.0</ele><time>2026-04-28T12:58:07.941Z</time></trkpt><trkpt lat="39.5699918105643" lon="9.348888323969703"><ele>128.66666666666669</ele><time>2026-04-28T12:58:08.941Z</time></trkpt><trkpt lat="39.570191070004874" lon="9.348941634929911"><ele>130.33333333333334</ele><time>2026-04-28T12:58:09.941Z</time></trkpt><trkpt lat="39.57038884463096" lon="9.348995640489"><ele>132.0</ele><time>2026-04-28T12:58:10.941Z</time></trkpt><trkpt lat="39.57058846303077" lon="9.349051424574453"><ele>132.0</ele><time>2026-04-28T12:58:11.941Z</time></trkpt><trkpt lat="39.57079125234798" lon="9.349111908475354"><ele>132.0</ele><time>2026-04-28T12:58:12.941Z</time></trkpt><trkpt lat="39.57099194517952" lon="9.349173813700167"><ele>132.0</ele><time>2026-04-28T12:58:13.941Z</time></trkpt><trkpt lat="39.57119173605679" lon="9.34923870048823"><ele>133.0</ele><time>2026-04-28T12:58:14.941Z</time></trkpt><trkpt lat="39.571392192635265" lon="9.349305563653141"><ele>134.0</ele><time>2026-04-28T12:58:15.941Z</time></trkpt><trkpt lat="39.57159271192324" lon="9.349378794656607"><ele>135.0</ele><time>2026-04-28T12:58:16.941Z</time></trkpt><trkpt lat="39.571789451992785" lon="9.349456292578866"><ele>135.0</ele><time>2026-04-28T12:58:17.941Z</time></trkpt><trkpt lat="39.57198287030068" lon="9.349534918263688"><ele>135.0</ele><time>2026-04-28T12:58:18.941Z</time></trkpt><trkpt lat="39.572164660705404" lon="9.349617291193091"><ele>135.0</ele><time>2026-04-28T12:58:19.941Z</time></trkpt><trkpt lat="39.57232894753697" lon="9.349705088946575"><ele>139.33333333333334</ele><time>2026-04-28T12:58:20.941Z</time></trkpt><trkpt lat="39.572484926645785" lon="9.349805402494225"><ele>143.66666666666669</ele><time>2026-04-28T12:58:21.941Z</time></trkpt><trkpt lat="39.57263490500727" lon="9.34992499891249"><ele>148.0</ele><time>2026-04-28T12:58:22.941Z</time></trkpt><trkpt lat="39.57277548206694" lon="9.35005517204431"><ele>148.25</ele><time>2026-04-28T12:58:23.941Z</time></trkpt><trkpt lat="39.57289783969148" lon="9.350189738413942"><ele>148.5</ele><time>2026-04-28T12:58:24.941Z</time></trkpt><trkpt lat="39.572999869437" lon="9.350325208284954"><ele>148.75</ele><time>2026-04-28T12:58:25.941Z</time></trkpt><trkpt lat="39.57307699386844" lon="9.350470943463689"><ele>149.0</ele><time>2026-04-28T12:58:26.941Z</time></trkpt><trkpt lat="39.57313724240945" lon="9.350637881320809"><ele>150.66666666666666</ele><time>2026-04-28T12:58:27.941Z</time></trkpt><trkpt lat="39.573186805157356" lon="9.350830684513221"><ele>152.33333333333334</ele><time>2026-04-28T12:58:28.941Z</time></trkpt><trkpt lat="39.57322809855536" lon="9.351035380754007"><ele>154.0</ele><time>2026-04-28T12:58:29.941Z</time></trkpt><trkpt lat="39.5732784763665" lon="9.351245870259522"><ele>156.66666666666669</ele><time>2026-04-28T12:58:30.941Z</time></trkpt><trkpt lat="39.57334301563058" lon="9.35145107624996"><ele>159.33333333333334</ele><time>2026-04-28T12:58:31.941Z</time></trkpt><trkpt lat="39.57339082889481" lon="9.35164933043752"><ele>162.0</ele><time>2026-04-28T12:58:32.941Z</time></trkpt><trkpt lat="39.57347973573998" lon="9.351839104363984"><ele>162.0</ele><time>2026-04-28T12:58:33.941Z</time></trkpt><trkpt lat="39.57358531057781" lon="9.352012344383816"><ele>162.0</ele><time>2026-04-28T12:58:34.941Z</time></trkpt><trkpt lat="39.573706007363" lon="9.352183283719569"><ele>162.0</ele><time>2026-04-28T12:58:35.941Z</time></trkpt><trkpt lat="39.573838667495465" lon="9.35235624455893"><ele>163.0</ele><time>2026-04-28T12:58:36.941Z</time></trkpt><trkpt lat="39.573979355152034" lon="9.352538651781563"><ele>164.0</ele><time>2026-04-28T12:58:37.941Z</time></trkpt><trkpt lat="39.57412235363987" lon="9.35272253100868"><ele>165.0</ele><time>2026-04-28T12:58:38.941Z</time></trkpt><trkpt lat="39.574267103348056" lon="9.35290179548855"><ele>165.33333333333334</ele><time>2026-04-28T12:58:39.941Z</time></trkpt><trkpt lat="39.5744112044486" lon="9.35307671989236"><ele>165.66666666666669</ele><time>2026-04-28T12:58:40.941Z</time></trkpt><trkpt lat="39.57456809400555" lon="9.353238838103675"><ele>166.0</ele><time>2026-04-28T12:58:41.941Z</time></trkpt><trkpt lat="39.57472901973285" lon="9.353391726420606"><ele>166.0</ele><time>2026-04-28T12:58:42.941Z</time></trkpt><trkpt lat="39.57489275987959" lon="9.353536239405223"><ele>166.0</ele><time>2026-04-28T12:58:43.941Z</time></trkpt><trkpt lat="39.575061270304865" lon="9.353661626530666"><ele>166.0</ele><time>2026-04-28T12:58:44.941Z</time></trkpt><trkpt lat="39.575230973339664" lon="9.353780136800328"><ele>168.33333333333334</ele><time>2026-04-28T12:58:45.941Z</time></trkpt><trkpt lat="39.5753926276238" lon="9.353885019305354"><ele>170.66666666666666</ele><time>2026-04-28T12:58:46.941Z</time></trkpt><trkpt lat="39.57554856135938" lon="9.353970792456634"><ele>173.0</ele><time>2026-04-28T12:58:47.941Z</time></trkpt><trkpt lat="39.575710603797866" lon="9.354039485102929"><ele>173.0</ele><time>2026-04-28T12:58:48.941Z</time></trkpt><trkpt lat="39.575881562499866" lon="9.354091538033572"><ele>173.0</ele><time>2026-04-28T12:58:49.941Z</time></trkpt><trkpt lat="39.576057750124455" lon="9.354121608142874"><ele>173.0</ele><time>2026-04-28T12:58:50.942Z</time></trkpt><trkpt lat="39.57623979747116" lon="9.354131348079468"><ele>175.33333333333331</ele><time>2026-04-28T12:58:51.942Z</time></trkpt><trkpt lat="39.576430905634055" lon="9.354132587981981"><ele>177.66666666666666</ele><time>2026-04-28T12:58:52.942Z</time></trkpt><trkpt lat="39.57662777255123" lon="9.354131931159204"><ele>180.0</ele><time>2026-04-28T12:58:53.942Z</time></trkpt><trkpt lat="39.57682939651801" lon="9.354133005352992"><ele>181.66666666666666</ele><time>2026-04-28T12:58:54.942Z</time></trkpt><trkpt lat="39.57703535577204" lon="9.354131304062477"><ele>183.33333333333331</ele><time>2026-04-28T12:58:55.942Z</time></trkpt><trkpt lat="39.57724233608764" lon="9.354132264523646"><ele>185.0</ele><time>2026-04-28T12:58:56.942Z</time></trkpt><trkpt lat="39.57745581382309" lon="9.354137894222868"><ele>185.0</ele><time>2026-04-28T12:58:57.942Z</time></trkpt><trkpt lat="39.5776736152668" lon="9.354143955242092"><ele>185.0</ele><time>2026-04-28T12:58:58.942Z</time></trkpt><trkpt lat="39.57789488429639" lon="9.354150744955962"><ele>185.0</ele><time>2026-04-28T12:58:59.942Z</time></trkpt><trkpt lat="39.57811596338474" lon="9.354157273344985"><ele>186.0</ele><time>2026-04-28T12:59:00.942Z</time></trkpt><trkpt lat="39.578324320703075" lon="9.354165612006648"><ele>187.0</ele><time>2026-04-28T12:59:01.942Z</time></trkpt><trkpt lat="39.57853291173361" lon="9.35416910984648"><ele>188.0</ele><time>2026-04-28T12:59:02.942Z</time></trkpt><trkpt lat="39.578743747151265" lon="9.354158368484978"><ele>189.33333333333331</ele><time>2026-04-28T12:59:03.942Z</time></trkpt><trkpt lat="39.57894854039719" lon="9.354131236273023"><ele>190.66666666666666</ele><time>2026-04-28T12:59:04.942Z</time></trkpt><trkpt lat="39.57915125736047" lon="9.354090747658244"><ele>192.0</ele><time>2026-04-28T12:59:05.942Z</time></trkpt><trkpt lat="39.57934673966695" lon="9.35404954511631"><ele>193.33333333333331</ele><time>2026-04-28T12:59:06.942Z</time></trkpt><trkpt lat="39.579534196398136" lon="9.354011399479155"><ele>194.66666666666666</ele><time>2026-04-28T12:59:07.942Z</time></trkpt><trkpt lat="39.57971829409579" lon="9.35397784168115"><ele>196.0</ele><time>2026-04-28T12:59:08.942Z</time></trkpt><trkpt lat="39.579904184539046" lon="9.353946214637121"><ele>196.0</ele><time>2026-04-28T12:59:09.942Z</time></trkpt><trkpt lat="39.58007133197572" lon="9.353949445958223"><ele>196.0</ele><time>2026-04-28T12:59:10.942Z</time></trkpt><trkpt lat="39.58022784409996" lon="9.3539710458446"><ele>196.0</ele><time>2026-04-28T12:59:11.942Z</time></trkpt><trkpt lat="39.58037644992099" lon="9.354015316649624"><ele>197.25</ele><time>2026-04-28T12:59:12.942Z</time></trkpt><trkpt lat="39.58051581065246" lon="9.354078882997067"><ele>198.5</ele><time>2026-04-28T12:59:13.942Z</time></trkpt><trkpt lat="39.5806365878687" lon="9.354159300310485"><ele>199.75</ele><time>2026-04-28T12:59:14.942Z</time></trkpt><trkpt lat="39.580730139633204" lon="9.35426073832053"><ele>201.0</ele><time>2026-04-28T12:59:15.942Z</time></trkpt><trkpt lat="39.58080054887021" lon="9.35438059432809"><ele>201.0</ele><time>2026-04-28T12:59:16.942Z</time></trkpt><trkpt lat="39.58084091385338" lon="9.35450154465915"><ele>201.0</ele><time>2026-04-28T12:59:17.942Z</time></trkpt><trkpt lat="39.58087067141892" lon="9.354651860459777"><ele>201.0</ele><time>2026-04-28T12:59:18.942Z</time></trkpt><trkpt lat="39.58089649347191" lon="9.35482100533923"><ele>201.0</ele><time>2026-04-28T12:59:19.942Z</time></trkpt><trkpt lat="39.58093694501867" lon="9.354999588020453"><ele>200.66666666666669</ele><time>2026-04-28T12:59:20.942Z</time></trkpt><trkpt lat="39.580962011557894" lon="9.35519624051464"><ele>200.33333333333334</ele><time>2026-04-28T12:59:21.942Z</time></trkpt><trkpt lat="39.58098778706432" lon="9.355403101183626"><ele>200.0</ele><time>2026-04-28T12:59:22.942Z</time></trkpt><trkpt lat="39.58101651315315" lon="9.355617601633275"><ele>200.0</ele><time>2026-04-28T12:59:23.942Z</time></trkpt><trkpt lat="39.58105595754409" lon="9.355850439557797"><ele>200.0</ele><time>2026-04-28T12:59:24.942Z</time></trkpt><trkpt lat="39.581083474166796" lon="9.356074160756553"><ele>200.0</ele><time>2026-04-28T12:59:25.942Z</time></trkpt><trkpt lat="39.581113451514696" lon="9.356299969678462"><ele>200.33333333333334</ele><time>2026-04-28T12:59:26.942Z</time></trkpt><trkpt lat="39.58114149675954" lon="9.356532195214584"><ele>200.66666666666669</ele><time>2026-04-28T12:59:27.942Z</time></trkpt><trkpt lat="39.581158174080365" lon="9.356763272731621"><ele>201.0</ele><time>2026-04-28T12:59:28.942Z</time></trkpt><trkpt lat="39.58115170855966" lon="9.356983486900194"><ele>201.0</ele><time>2026-04-28T12:59:29.942Z</time></trkpt><trkpt lat="39.58113075266589" lon="9.35719672097346"><ele>201.0</ele><time>2026-04-28T12:59:30.942Z</time></trkpt><trkpt lat="39.58108741692638" lon="9.357395453739102"><ele>201.0</ele><time>2026-04-28T12:59:31.942Z</time></trkpt><trkpt lat="39.58103283631767" lon="9.357573111747152"><ele>204.0</ele><time>2026-04-28T12:59:32.942Z</time></trkpt><trkpt lat="39.58094975632273" lon="9.357713795704482"><ele>207.0</ele><time>2026-04-28T12:59:33.942Z</time></trkpt><trkpt lat="39.58085212903854" lon="9.35785398887809"><ele>210.0</ele><time>2026-04-28T12:59:34.942Z</time></trkpt><trkpt lat="39.58075014352719" lon="9.35801708505662"><ele>213.0</ele><time>2026-04-28T12:59:35.941Z</time></trkpt><trkpt lat="39.58065040213288" lon="9.358178454865476"><ele>217.0</ele><time>2026-04-28T12:59:36.941Z</time></trkpt><trkpt lat="39.580562254456204" lon="9.35835357299902"><ele>221.0</ele><time>2026-04-28T12:59:37.941Z</time></trkpt><trkpt lat="39.58050705964163" lon="9.358541123202157"><ele>225.0</ele><time>2026-04-28T12:59:38.941Z</time></trkpt><trkpt lat="39.5804551454007" lon="9.358713294990714"><ele>225.75</ele><time>2026-04-28T12:59:39.941Z</time></trkpt><trkpt lat="39.580430033843015" lon="9.358887116204723"><ele>226.5</ele><time>2026-04-28T12:59:40.941Z</time></trkpt><trkpt lat="39.58042929620583" lon="9.359045629298045"><ele>227.25</ele><time>2026-04-28T12:59:41.941Z</time></trkpt><trkpt lat="39.58044826149061" lon="9.359192069722408"><ele>228.0</ele><time>2026-04-28T12:59:42.941Z</time></trkpt><trkpt lat="39.5804878375463" lon="9.359343448625514"><ele>228.0</ele><time>2026-04-28T12:59:43.941Z</time></trkpt><trkpt lat="39.580545290319485" lon="9.359497233652792"><ele>228.0</ele><time>2026-04-28T12:59:44.941Z</time></trkpt><trkpt lat="39.58061143522568" lon="9.359655710686045"><ele>228.0</ele><time>2026-04-28T12:59:45.941Z</time></trkpt><trkpt lat="39.580676059333754" lon="9.359816523102463"><ele>228.0</ele><time>2026-04-28T12:59:46.941Z</time></trkpt><trkpt lat="39.58074344883696" lon="9.35996017896499"><ele>226.2</ele><time>2026-04-28T12:59:47.941Z</time></trkpt><trkpt lat="39.580814541650945" lon="9.36007087972316"><ele>224.4</ele><time>2026-04-28T12:59:48.941Z</time></trkpt><trkpt lat="39.58089430488975" lon="9.360152637912993"><ele>222.59999999999997</ele><time>2026-04-28T12:59:49.941Z</time></trkpt><trkpt lat="39.58098784370067" lon="9.360225509376562"><ele>220.79999999999998</ele><time>2026-04-28T12:59:50.941Z</time></trkpt><trkpt lat="39.58109462807974" lon="9.36027541035561"><ele>219.0</ele><time>2026-04-28T12:59:51.941Z</time></trkpt><trkpt lat="39.581211837353436" lon="9.36030503148969"><ele>223.5</ele><time>2026-04-28T12:59:52.941Z</time></trkpt><trkpt lat="39.58133748217904" lon="9.36033030028984"><ele>228.0</ele><time>2026-04-28T12:59:53.941Z</time></trkpt><trkpt lat="39.58146264571725" lon="9.360338502578509"><ele>232.5</ele><time>2026-04-28T12:59:54.941Z</time></trkpt><trkpt lat="39.581595178889174" lon="9.360334907387672"><ele>237.0</ele><time>2026-04-28T12:59:55.941Z</time></trkpt><trkpt lat="39.58172371712503" lon="9.360312575934621"><ele>237.0</ele><time>2026-04-28T12:59:56.941Z</time></trkpt><trkpt lat="39.58184424680057" lon="9.360267886749968"><ele>237.0</ele><time>2026-04-28T12:59:57.941Z</time></trkpt><trkpt lat="39.581946355205154" lon="9.36022572241433"><ele>237.0</ele><time>2026-04-28T12:59:58.941Z</time></trkpt><trkpt lat="39.58205227668082" lon="9.360142598495415"><ele>237.0</ele><time>2026-04-28T12:59:59.941Z</time></trkpt><trkpt lat="39.58215956993604" lon="9.360017172518283"><ele>242.66666666666669</ele><time>2026-04-28T13:00:00.941Z</time></trkpt><trkpt lat="39.58225189852844" lon="9.35986696943008"><ele>248.33333333333334</ele><time>2026-04-28T13:00:01.941Z</time></trkpt><trkpt lat="39.58234246964081" lon="9.359702745555406"><ele>254.0</ele><time>2026-04-28T13:00:02.941Z</time></trkpt><trkpt lat="39.58244277058186" lon="9.359520610339702"><ele>254.0</ele><time>2026-04-28T13:00:03.941Z</time></trkpt><trkpt lat="39.58254231888069" lon="9.35936460563781"><ele>254.0</ele><time>2026-04-28T13:00:04.941Z</time></trkpt><trkpt lat="39.582651191904205" lon="9.359216705498996"><ele>254.0</ele><time>2026-04-28T13:00:05.941Z</time></trkpt><trkpt lat="39.58277784254823" lon="9.359060708444316"><ele>253.33333333333334</ele><time>2026-04-28T13:00:06.941Z</time></trkpt><trkpt lat="39.58292657211699" lon="9.3588896341612"><ele>252.66666666666669</ele><time>2026-04-28T13:00:07.941Z</time></trkpt><trkpt lat="39.58307320322653" lon="9.358723485669257"><ele>252.0</ele><time>2026-04-28T13:00:08.941Z</time></trkpt><trkpt lat="39.58321398902644" lon="9.358565469929513"><ele>252.0</ele><time>2026-04-28T13:00:09.941Z</time></trkpt><trkpt lat="39.58336058019427" lon="9.358402436845127"><ele>252.0</ele><time>2026-04-28T13:00:10.941Z</time></trkpt><trkpt lat="39.58349513764763" lon="9.358255180500734"><ele>252.0</ele><time>2026-04-28T13:00:11.941Z</time></trkpt><trkpt lat="39.583615456041706" lon="9.358119716573674"><ele>250.5</ele><time>2026-04-28T13:00:12.941Z</time></trkpt><trkpt lat="39.58372469485339" lon="9.357995817283443"><ele>249.0</ele><time>2026-04-28T13:00:13.941Z</time></trkpt><trkpt lat="39.58381674171393" lon="9.357892734878192"><ele>247.5</ele><time>2026-04-28T13:00:14.941Z</time></trkpt><trkpt lat="39.58392867313626" lon="9.357829646198562"><ele>246.0</ele><time>2026-04-28T13:00:15.941Z</time></trkpt><trkpt lat="39.584059525742134" lon="9.357814254763982"><ele>246.0</ele><time>2026-04-28T13:00:16.941Z</time></trkpt><trkpt lat="39.584208173118704" lon="9.357782911645977"><ele>246.0</ele><time>2026-04-28T13:00:17.941Z</time></trkpt><trkpt lat="39.5843713661378" lon="9.357748740602743"><ele>246.0</ele><time>2026-04-28T13:00:18.941Z</time></trkpt><trkpt lat="39.58454346523084" lon="9.35769324138556"><ele>250.66666666666669</ele><time>2026-04-28T13:00:19.941Z</time></trkpt><trkpt lat="39.584726590177915" lon="9.357652039399506"><ele>255.33333333333334</ele><time>2026-04-28T13:00:20.941Z</time></trkpt><trkpt lat="39.58491786963823" lon="9.357612665535704"><ele>260.0</ele><time>2026-04-28T13:00:21.941Z</time></trkpt><trkpt lat="39.585105011942126" lon="9.35758956727011"><ele>260.0</ele><time>2026-04-28T13:00:22.941Z</time></trkpt><trkpt lat="39.5852903966795" lon="9.357531089642933"><ele>260.0</ele><time>2026-04-28T13:00:23.941Z</time></trkpt><trkpt lat="39.58547972123226" lon="9.357488481047385"><ele>260.0</ele><time>2026-04-28T13:00:24.942Z</time></trkpt><trkpt lat="39.58566501488488" lon="9.357457059896886"><ele>263.6666666666667</ele><time>2026-04-28T13:00:25.942Z</time></trkpt><trkpt lat="39.58584800724721" lon="9.357393033649869"><ele>267.3333333333333</ele><time>2026-04-28T13:00:26.942Z</time></trkpt><trkpt lat="39.5860217416326" lon="9.357300162492734"><ele>271.0</ele><time>2026-04-28T13:00:27.942Z</time></trkpt><trkpt lat="39.58619981879128" lon="9.357231758049672"><ele>271.5</ele><time>2026-04-28T13:00:28.942Z</time></trkpt><trkpt lat="39.586359320088576" lon="9.357166709252995"><ele>272.0</ele><time>2026-04-28T13:00:29.942Z</time></trkpt><trkpt lat="39.58649023091913" lon="9.357100992277827"><ele>272.5</ele><time>2026-04-28T13:00:30.942Z</time></trkpt><trkpt lat="39.586602178920195" lon="9.357053447025317"><ele>273.0</ele><time>2026-04-28T13:00:31.942Z</time></trkpt><trkpt lat="39.58668856586072" lon="9.35696280731358"><ele>273.0</ele><time>2026-04-28T13:00:32.942Z</time></trkpt><trkpt lat="39.58674403710889" lon="9.356838553313784"><ele>273.0</ele><time>2026-04-28T13:00:33.942Z</time></trkpt><trkpt lat="39.58680080702351" lon="9.356697916361023"><ele>273.0</ele><time>2026-04-28T13:00:34.942Z</time></trkpt><trkpt lat="39.58684886055971" lon="9.356536531312127"><ele>273.0</ele><time>2026-04-28T13:00:35.942Z</time></trkpt><trkpt lat="39.58689651422446" lon="9.356368560029813"><ele>272.75</ele><time>2026-04-28T13:00:36.942Z</time></trkpt><trkpt lat="39.58694756208142" lon="9.356197935776915"><ele>272.5</ele><time>2026-04-28T13:00:37.942Z</time></trkpt><trkpt lat="39.58700647055306" lon="9.35604265904973"><ele>272.25</ele><time>2026-04-28T13:00:38.942Z</time></trkpt><trkpt lat="39.5870689823462" lon="9.355911627599669"><ele>272.0</ele><time>2026-04-28T13:00:39.942Z</time></trkpt><trkpt lat="39.58713837357372" lon="9.355813808191582"><ele>274.2</ele><time>2026-04-28T13:00:40.942Z</time></trkpt><trkpt lat="39.587225196215755" lon="9.355743962742787"><ele>276.4</ele><time>2026-04-28T13:00:41.942Z</time></trkpt><trkpt lat="39.58732806837148" lon="9.355708513746736"><ele>278.6</ele><time>2026-04-28T13:00:42.942Z</time></trkpt><trkpt lat="39.58743911776369" lon="9.355735683725126"><ele>280.8</ele><time>2026-04-28T13:00:43.942Z</time></trkpt><trkpt lat="39.58756265773538" lon="9.355736725699945"><ele>283.0</ele><time>2026-04-28T13:00:44.942Z</time></trkpt><trkpt lat="39.58769571369872" lon="9.355761082905127"><ele>283.0</ele><time>2026-04-28T13:00:45.942Z</time></trkpt><trkpt lat="39.587817052914154" lon="9.355793617742759"><ele>283.0</ele><time>2026-04-28T13:00:46.942Z</time></trkpt><trkpt lat="39.587924392689445" lon="9.3557735126285"><ele>283.0</ele><time>2026-04-28T13:00:47.942Z</time></trkpt><trkpt lat="39.58801210606439" lon="9.355696234891191"><ele>283.0</ele><time>2026-04-28T13:00:48.942Z</time></trkpt><trkpt lat="39.58809951191829" lon="9.355607417075456"><ele>283.0</ele><time>2026-04-28T13:00:49.942Z</time></trkpt><trkpt lat="39.588181380840815" lon="9.355491924778061"><ele>282.66666666666663</ele><time>2026-04-28T13:00:50.942Z</time></trkpt><trkpt lat="39.588274509026526" lon="9.355345041877502"><ele>282.3333333333333</ele><time>2026-04-28T13:00:51.942Z</time></trkpt><trkpt lat="39.58838136056647" lon="9.355190639912815"><ele>282.0</ele><time>2026-04-28T13:00:52.942Z</time></trkpt><trkpt lat="39.58850858209323" lon="9.35503247961528"><ele>282.0</ele><time>2026-04-28T13:00:53.942Z</time></trkpt><trkpt lat="39.588641458737925" lon="9.354865193513776"><ele>282.0</ele><time>2026-04-28T13:00:54.942Z</time></trkpt><trkpt lat="39.588758120818945" lon="9.3547227428782"><ele>282.0</ele><time>2026-04-28T13:00:55.942Z</time></trkpt><trkpt lat="39.588871740170845" lon="9.354613598398071"><ele>280.75</ele><time>2026-04-28T13:00:56.942Z</time></trkpt><trkpt lat="39.588996917838585" lon="9.354548630451395"><ele>279.5</ele><time>2026-04-28T13:00:57.942Z</time></trkpt><trkpt lat="39.58911980499526" lon="9.354553368630482"><ele>278.25</ele><time>2026-04-28T13:00:58.942Z</time></trkpt><trkpt lat="39.58923746641429" lon="9.354577991766517"><ele>277.0</ele><time>2026-04-28T13:00:59.942Z</time></trkpt><trkpt lat="39.589389984730495" lon="9.354608120495321"><ele>277.0</ele><time>2026-04-28T13:01:00.942Z</time></trkpt><trkpt lat="39.589199039954885" lon="9.354572008394149"><ele>277.0</ele><time>2026-04-28T13:01:01.942Z</time></trkpt><trkpt lat="39.58933122729284" lon="9.354596759736364"><ele>277.0</ele><time>2026-04-28T13:01:02.942Z</time></trkpt><trkpt lat="39.58946481151629" lon="9.354617367854514"><ele>282.25</ele><time>2026-04-28T13:01:03.942Z</time></trkpt><trkpt lat="39.58958237452298" lon="9.354610586675888"><ele>287.5</ele><time>2026-04-28T13:01:04.942Z</time></trkpt><trkpt lat="39.58968858522174" lon="9.354549687159654"><ele>292.75</ele><time>2026-04-28T13:01:05.942Z</time></trkpt><trkpt lat="39.58978793331112" lon="9.35448308999192"><ele>298.0</ele><time>2026-04-28T13:01:06.942Z</time></trkpt><trkpt lat="39.58986931297257" lon="9.354390193805767"><ele>298.0</ele><time>2026-04-28T13:01:07.942Z</time></trkpt><trkpt lat="39.58992461809571" lon="9.354277834077173"><ele>298.0</ele><time>2026-04-28T13:01:08.942Z</time></trkpt><trkpt lat="39.589961152178105" lon="9.354135484795059"><ele>298.0</ele><time>2026-04-28T13:01:09.942Z</time></trkpt><trkpt lat="39.589988242192526" lon="9.35397932600814"><ele>298.0</ele><time>2026-04-28T13:01:10.942Z</time></trkpt><trkpt lat="39.59000287787042" lon="9.35380868462547"><ele>296.25</ele><time>2026-04-28T13:01:11.942Z</time></trkpt><trkpt lat="39.590026910411545" lon="9.353639447730004"><ele>294.5</ele><time>2026-04-28T13:01:12.942Z</time></trkpt><trkpt lat="39.59005610432184" lon="9.353475441555473"><ele>292.75</ele><time>2026-04-28T13:01:13.942Z</time></trkpt><trkpt lat="39.59010018787868" lon="9.353343645814974"><ele>291.0</ele><time>2026-04-28T13:01:14.942Z</time></trkpt><trkpt lat="39.590164817449946" lon="9.353237611407385"><ele>291.0</ele><time>2026-04-28T13:01:15.942Z</time></trkpt><trkpt lat="39.59026488530354" lon="9.353156342386054"><ele>291.0</ele><time>2026-04-28T13:01:16.942Z</time></trkpt><trkpt lat="39.59035939950819" lon="9.353034993782584"><ele>291.0</ele><time>2026-04-28T13:01:17.943Z</time></trkpt><trkpt lat="39.59048010204988" lon="9.352923013792926"><ele>291.0</ele><time>2026-04-28T13:01:18.943Z</time></trkpt><trkpt lat="39.590604617917414" lon="9.352805604299624"><ele>295.6666666666667</ele><time>2026-04-28T13:01:19.943Z</time></trkpt><trkpt lat="39.59072781153089" lon="9.352680464596387"><ele>300.33333333333337</ele><time>2026-04-28T13:01:20.943Z</time></trkpt><trkpt lat="39.59084826078935" lon="9.352560274603498"><ele>305.0</ele><time>2026-04-28T13:01:21.943Z</time></trkpt><trkpt lat="39.59096225485292" lon="9.352438629760869"><ele>305.0</ele><time>2026-04-28T13:01:22.943Z</time></trkpt><trkpt lat="39.59105912299323" lon="9.352339675783984"><ele>305.0</ele><time>2026-04-28T13:01:23.943Z</time></trkpt><trkpt lat="39.59112825554919" lon="9.352233174651243"><ele>305.0</ele><time>2026-04-28T13:01:24.943Z</time></trkpt><trkpt lat="39.59119882012622" lon="9.352114233032596"><ele>305.0</ele><time>2026-04-28T13:01:25.943Z</time></trkpt><trkpt lat="39.59123681377045" lon="9.351970925707402"><ele>303.4</ele><time>2026-04-28T13:01:26.943Z</time></trkpt><trkpt lat="39.59126898470771" lon="9.351823744242086"><ele>301.8</ele><time>2026-04-28T13:01:27.943Z</time></trkpt><trkpt lat="39.59130014599672" lon="9.351684515510831"><ele>300.2</ele><time>2026-04-28T13:01:28.943Z</time></trkpt><trkpt lat="39.59135584740016" lon="9.35156924314509"><ele>298.6</ele><time>2026-04-28T13:01:29.943Z</time></trkpt><trkpt lat="39.59143418284097" lon="9.351469942969281"><ele>297.0</ele><time>2026-04-28T13:01:30.943Z</time></trkpt><trkpt lat="39.591540129454074" lon="9.351397213245281"><ele>301.25</ele><time>2026-04-28T13:01:31.943Z</time></trkpt><trkpt lat="39.591659348632014" lon="9.351362978312975"><ele>305.5</ele><time>2026-04-28T13:01:32.943Z</time></trkpt><trkpt lat="39.5917818328859" lon="9.351348512704972"><ele>309.75</ele><time>2026-04-28T13:01:33.943Z</time></trkpt><trkpt lat="39.59191849366892" lon="9.351352997769496"><ele>314.0</ele><time>2026-04-28T13:01:34.943Z</time></trkpt><trkpt lat="39.59206817209015" lon="9.351358092813703"><ele>314.0</ele><time>2026-04-28T13:01:35.943Z</time></trkpt><trkpt lat="39.592217040513404" lon="9.351366220052647"><ele>314.0</ele><time>2026-04-28T13:01:36.943Z</time></trkpt><trkpt lat="39.59237698802442" lon="9.351368144813948"><ele>314.0</ele><time>2026-04-28T13:01:37.943Z</time></trkpt><trkpt lat="39.592518137483424" lon="9.35136524225127"><ele>314.0</ele><time>2026-04-28T13:01:38.943Z</time></trkpt><trkpt lat="39.592671085632524" lon="9.35136730745046"><ele>314.0</ele><time>2026-04-28T13:01:39.943Z</time></trkpt><trkpt lat="39.59282143555738" lon="9.351341546685312"><ele>314.0</ele><time>2026-04-28T13:01:40.943Z</time></trkpt><trkpt lat="39.59297358907962" lon="9.35129746455029"><ele>310.33333333333337</ele><time>2026-04-28T13:01:41.941Z</time></trkpt><trkpt lat="39.593123596003466" lon="9.351235451394485"><ele>306.6666666666667</ele><time>2026-04-28T13:01:42.942Z</time></trkpt><trkpt lat="39.59328161725162" lon="9.351169062095789"><ele>303.0</ele><time>2026-04-28T13:01:43.942Z</time></trkpt><trkpt lat="39.59345035904819" lon="9.351100067290899"><ele>303.0</ele><time>2026-04-28T13:01:44.942Z</time></trkpt><trkpt lat="39.59361955083485" lon="9.351035602770503"><ele>303.0</ele><time>2026-04-28T13:01:45.942Z</time></trkpt><trkpt lat="39.59378353489475" lon="9.350960751307056"><ele>303.0</ele><time>2026-04-28T13:01:46.942Z</time></trkpt><trkpt lat="39.59393641866066" lon="9.350884152368636"><ele>300.0</ele><time>2026-04-28T13:01:47.941Z</time></trkpt><trkpt lat="39.594083401794016" lon="9.350793900637555"><ele>297.0</ele><time>2026-04-28T13:01:48.941Z</time></trkpt><trkpt lat="39.594215849020415" lon="9.350707659139147"><ele>294.0</ele><time>2026-04-28T13:01:49.941Z</time></trkpt><trkpt lat="39.59433929946596" lon="9.350625564267975"><ele>291.0</ele><time>2026-04-28T13:01:50.941Z</time></trkpt><trkpt lat="39.594449316430776" lon="9.350560458830428"><ele>291.0</ele><time>2026-04-28T13:01:51.941Z</time></trkpt><trkpt lat="39.59455206477122" lon="9.350514774943955"><ele>291.0</ele><time>2026-04-28T13:01:52.941Z</time></trkpt><trkpt lat="39.5946434968437" lon="9.350537246810484"><ele>291.0</ele><time>2026-04-28T13:01:53.942Z</time></trkpt><trkpt lat="39.59474240416596" lon="9.350548687900563"><ele>291.0</ele><time>2026-04-28T13:01:54.942Z</time></trkpt><trkpt lat="39.59484417369027" lon="9.35061766640686"><ele>291.0</ele><time>2026-04-28T13:01:55.942Z</time></trkpt><trkpt lat="39.59492110414889" lon="9.350735552460291"><ele>291.0</ele><time>2026-04-28T13:01:56.942Z</time></trkpt><trkpt lat="39.59497692962148" lon="9.350863795657629"><ele>291.0</ele><time>2026-04-28T13:01:57.942Z</time></trkpt><trkpt lat="39.59503068425445" lon="9.351006550643406"><ele>291.0</ele><time>2026-04-28T13:01:58.942Z</time></trkpt><trkpt lat="39.59509998024911" lon="9.351156992874264"><ele>291.0</ele><time>2026-04-28T13:01:59.942Z</time></trkpt><trkpt lat="39.595158296594725" lon="9.351314806904083"><ele>290.75</ele><time>2026-04-28T13:02:00.942Z</time></trkpt><trkpt lat="39.59523343738148" lon="9.351454992600594"><ele>290.5</ele><time>2026-04-28T13:02:01.942Z</time></trkpt><trkpt lat="39.595327299861964" lon="9.351581647300502"><ele>290.25</ele><time>2026-04-28T13:02:02.942Z</time></trkpt><trkpt lat="39.595435696527474" lon="9.351699238627496"><ele>290.0</ele><time>2026-04-28T13:02:03.942Z</time></trkpt><trkpt lat="39.595555545651514" lon="9.351800685058286"><ele>290.0</ele><time>2026-04-28T13:02:04.942Z</time></trkpt><trkpt lat="39.59567873939784" lon="9.351888261253318"><ele>290.0</ele><time>2026-04-28T13:02:05.942Z</time></trkpt><trkpt lat="39.59581220255138" lon="9.35195881794324"><ele>290.0</ele><time>2026-04-28T13:02:06.942Z</time></trkpt><trkpt lat="39.59595147283555" lon="9.352015119070712"><ele>290.0</ele><time>2026-04-28T13:02:07.942Z</time></trkpt><trkpt lat="39.59611001426985" lon="9.352058387626139"><ele>292.33333333333337</ele><time>2026-04-28T13:02:08.942Z</time></trkpt><trkpt lat="39.59627648414322" lon="9.352095145007485"><ele>294.6666666666667</ele><time>2026-04-28T13:02:09.942Z</time></trkpt><trkpt lat="39.596449660483124" lon="9.352127288753525"><ele>297.0</ele><time>2026-04-28T13:02:10.942Z</time></trkpt><trkpt lat="39.59661354265836" lon="9.352166640286747"><ele>291.3333333333333</ele><time>2026-04-28T13:02:11.942Z</time></trkpt><trkpt lat="39.59677994925831" lon="9.35221149492073"><ele>285.66666666666663</ele><time>2026-04-28T13:02:12.942Z</time></trkpt><trkpt lat="39.59694180507802" lon="9.352256348114846"><ele>280.0</ele><time>2026-04-28T13:02:13.942Z</time></trkpt><trkpt lat="39.59710262547666" lon="9.35230629560347"><ele>280.0</ele><time>2026-04-28T13:02:14.942Z</time></trkpt><trkpt lat="39.597277352233064" lon="9.352343136897272"><ele>280.0</ele><time>2026-04-28T13:02:15.942Z</time></trkpt><trkpt lat="39.59745591880403" lon="9.352391462092752"><ele>280.0</ele><time>2026-04-28T13:02:16.942Z</time></trkpt><trkpt lat="39.59763503804043" lon="9.352442571367353"><ele>280.0</ele><time>2026-04-28T13:02:17.942Z</time></trkpt><trkpt lat="39.597812568235284" lon="9.352497436980999"><ele>280.0</ele><time>2026-04-28T13:02:18.942Z</time></trkpt><trkpt lat="39.597987892661614" lon="9.352557727271753"><ele>280.0</ele><time>2026-04-28T13:02:19.942Z</time></trkpt><trkpt lat="39.59816869209849" lon="9.3526379057993"><ele>283.0</ele><time>2026-04-28T13:02:20.942Z</time></trkpt><trkpt lat="39.59833972201546" lon="9.352714917133097"><ele>286.0</ele><time>2026-04-28T13:02:21.942Z</time></trkpt><trkpt lat="39.59849898458885" lon="9.352786080002243"><ele>289.0</ele><time>2026-04-28T13:02:22.942Z</time></trkpt><trkpt lat="39.598659024978204" lon="9.352844673307187"><ele>289.3333333333333</ele><time>2026-04-28T13:02:23.942Z</time></trkpt><trkpt lat="39.59881657411093" lon="9.352887339810177"><ele>289.6666666666667</ele><time>2026-04-28T13:02:24.942Z</time></trkpt><trkpt lat="39.59896323744612" lon="9.352915080620225"><ele>290.0</ele><time>2026-04-28T13:02:25.943Z</time></trkpt><trkpt lat="39.59910617469868" lon="9.352941793111965"><ele>290.0</ele><time>2026-04-28T13:02:26.943Z</time></trkpt><trkpt lat="39.59922930169174" lon="9.35297445167925"><ele>290.0</ele><time>2026-04-28T13:02:27.943Z</time></trkpt><trkpt lat="39.599326490148016" lon="9.353023782712325"><ele>290.0</ele><time>2026-04-28T13:02:28.943Z</time></trkpt><trkpt lat="39.599407303339504" lon="9.353094219994455"><ele>290.0</ele><time>2026-04-28T13:02:29.943Z</time></trkpt><trkpt lat="39.59947118938451" lon="9.353185315990794"><ele>290.0</ele><time>2026-04-28T13:02:30.943Z</time></trkpt><trkpt lat="39.59949253977024" lon="9.353320790651415"><ele>289.25</ele><time>2026-04-28T13:02:31.943Z</time></trkpt><trkpt lat="39.59951974439744" lon="9.353441051112593"><ele>288.5</ele><time>2026-04-28T13:02:32.943Z</time></trkpt><trkpt lat="39.599508365768855" lon="9.35358426495369"><ele>287.75</ele><time>2026-04-28T13:02:33.943Z</time></trkpt><trkpt lat="39.59948028689907" lon="9.353745613015995"><ele>287.0</ele><time>2026-04-28T13:02:34.943Z</time></trkpt><trkpt lat="39.59944459697841" lon="9.35390953854861"><ele>279.33333333333337</ele><time>2026-04-28T13:02:35.943Z</time></trkpt><trkpt lat="39.59940916027656" lon="9.354104479636552"><ele>271.6666666666667</ele><time>2026-04-28T13:02:36.943Z</time></trkpt><trkpt lat="39.59936046844732" lon="9.354288424379675"><ele>264.0</ele><time>2026-04-28T13:02:37.943Z</time></trkpt><trkpt lat="39.59930144289719" lon="9.354473416956338"><ele>264.0</ele><time>2026-04-28T13:02:38.943Z</time></trkpt><trkpt lat="39.5992284701969" lon="9.354646722520611"><ele>264.0</ele><time>2026-04-28T13:02:39.943Z</time></trkpt><trkpt lat="39.59915032686543" lon="9.354801618853458"><ele>264.0</ele><time>2026-04-28T13:02:40.943Z</time></trkpt><trkpt lat="39.599117786146444" lon="9.354968836323659"><ele>264.0</ele><time>2026-04-28T13:02:41.943Z</time></trkpt><trkpt lat="39.599091875750645" lon="9.355126438718418"><ele>263.75</ele><time>2026-04-28T13:02:42.943Z</time></trkpt><trkpt lat="39.5990931301183" lon="9.355290043665756"><ele>263.5</ele><time>2026-04-28T13:02:43.943Z</time></trkpt><trkpt lat="39.59910258984412" lon="9.355472426080027"><ele>263.25</ele><time>2026-04-28T13:02:44.943Z</time></trkpt><trkpt lat="39.59911956065434" lon="9.355654644988526"><ele>263.0</ele><time>2026-04-28T13:02:45.943Z</time></trkpt><trkpt lat="39.5991230399396" lon="9.355826155519306"><ele>263.0</ele><time>2026-04-28T13:02:46.943Z</time></trkpt><trkpt lat="39.599149756135546" lon="9.355984091303663"><ele>263.0</ele><time>2026-04-28T13:02:47.943Z</time></trkpt><trkpt lat="39.59920717581451" lon="9.356109709393165"><ele>263.0</ele><time>2026-04-28T13:02:48.943Z</time></trkpt><trkpt lat="39.59927064805029" lon="9.356237603572755"><ele>263.0</ele><time>2026-04-28T13:02:49.943Z</time></trkpt><trkpt lat="39.59935215105908" lon="9.356361010274473"><ele>262.75</ele><time>2026-04-28T13:02:50.943Z</time></trkpt><trkpt lat="39.599457107756635" lon="9.356475698656842"><ele>262.5</ele><time>2026-04-28T13:02:51.943Z</time></trkpt><trkpt lat="39.599568703523175" lon="9.356595798876603"><ele>262.25</ele><time>2026-04-28T13:02:52.943Z</time></trkpt><trkpt lat="39.5996803936265" lon="9.356713578835716"><ele>262.0</ele><time>2026-04-28T13:02:53.943Z</time></trkpt><trkpt lat="39.59979246399483" lon="9.356838305284308"><ele>262.0</ele><time>2026-04-28T13:02:54.943Z</time></trkpt><trkpt lat="39.599902885965705" lon="9.356940388720933"><ele>262.0</ele><time>2026-04-28T13:02:55.943Z</time></trkpt><trkpt lat="39.60001455128575" lon="9.357026396850417"><ele>262.0</ele><time>2026-04-28T13:02:56.943Z</time></trkpt><trkpt lat="39.600132686904566" lon="9.3570903875664"><ele>262.0</ele><time>2026-04-28T13:02:57.943Z</time></trkpt><trkpt lat="39.600252744452035" lon="9.35712225808175"><ele>259.75</ele><time>2026-04-28T13:02:58.943Z</time></trkpt><trkpt lat="39.600377285393755" lon="9.357120390541949"><ele>257.5</ele><time>2026-04-28T13:02:59.943Z</time></trkpt><trkpt lat="39.600505866509934" lon="9.35710048526681"><ele>255.25</ele><time>2026-04-28T13:03:00.943Z</time></trkpt><trkpt lat="39.60063666443761" lon="9.357057207176423"><ele>253.0</ele><time>2026-04-28T13:03:01.943Z</time></trkpt><trkpt lat="39.60076174556582" lon="9.35699639132518"><ele>253.0</ele><time>2026-04-28T13:03:02.943Z</time></trkpt><trkpt lat="39.600881501502805" lon="9.356917663967886"><ele>253.0</ele><time>2026-04-28T13:03:03.943Z</time></trkpt><trkpt lat="39.60098500194688" lon="9.356816140264542"><ele>253.0</ele><time>2026-04-28T13:03:04.943Z</time></trkpt><trkpt lat="39.60108033974642" lon="9.356694085959912"><ele>253.0</ele><time>2026-04-28T13:03:05.943Z</time></trkpt><trkpt lat="39.601163448565565" lon="9.356548608339654"><ele>248.0</ele><time>2026-04-28T13:03:06.943Z</time></trkpt><trkpt lat="39.60124734196268" lon="9.356394380969892"><ele>243.0</ele><time>2026-04-28T13:03:07.943Z</time></trkpt><trkpt lat="39.60133708738154" lon="9.35621622067672"><ele>238.0</ele><time>2026-04-28T13:03:08.943Z</time></trkpt><trkpt lat="39.60141872118834" lon="9.356024197799986"><ele>238.0</ele><time>2026-04-28T13:03:09.943Z</time></trkpt><trkpt lat="39.601497777519064" lon="9.35583618683567"><ele>238.0</ele><time>2026-04-28T13:03:10.943Z</time></trkpt><trkpt lat="39.60159084586422" lon="9.355651173465105"><ele>238.0</ele><time>2026-04-28T13:03:11.943Z</time></trkpt><trkpt lat="39.601681515410014" lon="9.35546453542988"><ele>240.33333333333331</ele><time>2026-04-28T13:03:12.943Z</time></trkpt><trkpt lat="39.60176792288296" lon="9.355270969802344"><ele>242.66666666666669</ele><time>2026-04-28T13:03:13.943Z</time></trkpt><trkpt lat="39.60184101766598" lon="9.35507961798299"><ele>245.0</ele><time>2026-04-28T13:03:14.943Z</time></trkpt><trkpt lat="39.601906793411445" lon="9.354873767368082"><ele>245.66666666666669</ele><time>2026-04-28T13:03:15.943Z</time></trkpt><trkpt lat="39.601963475006194" lon="9.35466220165777"><ele>246.33333333333331</ele><time>2026-04-28T13:03:16.943Z</time></trkpt><trkpt lat="39.60201858251042" lon="9.354456819726881"><ele>247.0</ele><time>2026-04-28T13:03:17.943Z</time></trkpt><trkpt lat="39.60207277026772" lon="9.354249263938478"><ele>239.33333333333331</ele><time>2026-04-28T13:03:18.944Z</time></trkpt><trkpt lat="39.60212286498608" lon="9.354053015332386"><ele>231.66666666666669</ele><time>2026-04-28T13:03:19.944Z</time></trkpt><trkpt lat="39.602164642950314" lon="9.353849770066985"><ele>224.0</ele><time>2026-04-28T13:03:20.944Z</time></trkpt><trkpt lat="39.6021961916407" lon="9.353642887488036"><ele>224.0</ele><time>2026-04-28T13:03:21.944Z</time></trkpt><trkpt lat="39.60222495741665" lon="9.353434810126013"><ele>224.0</ele><time>2026-04-28T13:03:22.944Z</time></trkpt><trkpt lat="39.602257554705645" lon="9.353233995037503"><ele>224.0</ele><time>2026-04-28T13:03:23.944Z</time></trkpt><trkpt lat="39.60229890903833" lon="9.353051635991601"><ele>224.25</ele><time>2026-04-28T13:03:24.944Z</time></trkpt><trkpt lat="39.60236171297466" lon="9.352908330828354"><ele>224.5</ele><time>2026-04-28T13:03:25.944Z</time></trkpt><trkpt lat="39.6024210317406" lon="9.35278812643712"><ele>224.75</ele><time>2026-04-28T13:03:26.944Z</time></trkpt><trkpt lat="39.60248058525578" lon="9.35266243392648"><ele>225.0</ele><time>2026-04-28T13:03:27.944Z</time></trkpt><trkpt lat="39.60258519045096" lon="9.352543191422063"><ele>225.0</ele><time>2026-04-28T13:03:28.944Z</time></trkpt><trkpt lat="39.60271606108347" lon="9.35246495202571"><ele>225.0</ele><time>2026-04-28T13:03:29.944Z</time></trkpt><trkpt lat="39.602852109628344" lon="9.35239422884071"><ele>225.0</ele><time>2026-04-28T13:03:30.944Z</time></trkpt><trkpt lat="39.603001741223764" lon="9.35232239953865"><ele>221.33333333333331</ele><time>2026-04-28T13:03:31.944Z</time></trkpt><trkpt lat="39.60316444557403" lon="9.35222702671248"><ele>217.66666666666666</ele><time>2026-04-28T13:03:32.944Z</time></trkpt><trkpt lat="39.60333976814362" lon="9.352152338838646"><ele>214.0</ele><time>2026-04-28T13:03:33.944Z</time></trkpt><trkpt lat="39.60351982700552" lon="9.352064832006212"><ele>212.33333333333331</ele><time>2026-04-28T13:03:34.944Z</time></trkpt><trkpt lat="39.603705940287185" lon="9.351984105870207"><ele>210.66666666666669</ele><time>2026-04-28T13:03:35.944Z</time></trkpt><trkpt lat="39.60389130261586" lon="9.351894134060705"><ele>209.0</ele><time>2026-04-28T13:03:36.944Z</time></trkpt><trkpt lat="39.60407851304311" lon="9.351801659722478"><ele>209.0</ele><time>2026-04-28T13:03:37.944Z</time></trkpt><trkpt lat="39.60427112008178" lon="9.351711982540039"><ele>209.0</ele><time>2026-04-28T13:03:38.944Z</time></trkpt><trkpt lat="39.60445860938124" lon="9.351622377304887"><ele>209.0</ele><time>2026-04-28T13:03:39.944Z</time></trkpt><trkpt lat="39.60464455451653" lon="9.351535114055016"><ele>208.33333333333334</ele><time>2026-04-28T13:03:40.944Z</time></trkpt><trkpt lat="39.60484168188832" lon="9.351434869460503"><ele>207.66666666666669</ele><time>2026-04-28T13:03:41.944Z</time></trkpt><trkpt lat="39.60503631195177" lon="9.351346961223072"><ele>207.0</ele><time>2026-04-28T13:03:42.944Z</time></trkpt><trkpt lat="39.60523545877902" lon="9.351252974967586"><ele>205.33333333333331</ele><time>2026-04-28T13:03:43.944Z</time></trkpt><trkpt lat="39.605436537090675" lon="9.351158093340093"><ele>203.66666666666666</ele><time>2026-04-28T13:03:44.944Z</time></trkpt><trkpt lat="39.605632460837555" lon="9.351061229731558"><ele>202.0</ele><time>2026-04-28T13:03:45.944Z</time></trkpt><trkpt lat="39.60583309207523" lon="9.350958628087081"><ele>202.0</ele><time>2026-04-28T13:03:46.944Z</time></trkpt><trkpt lat="39.6060341650257" lon="9.350861915529409"><ele>202.0</ele><time>2026-04-28T13:03:47.942Z</time></trkpt><trkpt lat="39.606235290613036" lon="9.350769534554502"><ele>202.0</ele><time>2026-04-28T13:03:48.941Z</time></trkpt><trkpt lat="39.60643452682588" lon="9.350676919639605"><ele>202.0</ele><time>2026-04-28T13:03:49.941Z</time></trkpt><trkpt lat="39.60663567789106" lon="9.350584116559794"><ele>202.0</ele><time>2026-04-28T13:03:50.942Z</time></trkpt><trkpt lat="39.606835084906095" lon="9.350488123212108"><ele>202.0</ele><time>2026-04-28T13:03:51.942Z</time></trkpt><trkpt lat="39.60702940496834" lon="9.350398824274858"><ele>202.66666666666666</ele><time>2026-04-28T13:03:52.942Z</time></trkpt><trkpt lat="39.60722234649196" lon="9.350299856740541"><ele>203.33333333333331</ele><time>2026-04-28T13:03:53.941Z</time></trkpt><trkpt lat="39.607411321407895" lon="9.350196206431313"><ele>204.0</ele><time>2026-04-28T13:03:54.941Z</time></trkpt><trkpt lat="39.607589344002" lon="9.350088969325789"><ele>204.0</ele><time>2026-04-28T13:03:55.941Z</time></trkpt><trkpt lat="39.607766953449186" lon="9.349960466146195"><ele>204.0</ele><time>2026-04-28T13:03:56.942Z</time></trkpt><trkpt lat="39.607935025596866" lon="9.349821520883161"><ele>204.0</ele><time>2026-04-28T13:03:57.941Z</time></trkpt><trkpt lat="39.60810261163641" lon="9.349669056417994"><ele>205.0</ele><time>2026-04-28T13:03:58.941Z</time></trkpt><trkpt lat="39.608271501939946" lon="9.349504109084178"><ele>206.0</ele><time>2026-04-28T13:03:59.941Z</time></trkpt><trkpt lat="39.608438412410536" lon="9.349343055263798"><ele>207.0</ele><time>2026-04-28T13:04:00.942Z</time></trkpt><trkpt lat="39.608604016187535" lon="9.349180651927437"><ele>206.66666666666669</ele><time>2026-04-28T13:04:01.942Z</time></trkpt><trkpt lat="39.60877322003668" lon="9.349021893991223"><ele>206.33333333333334</ele><time>2026-04-28T13:04:02.942Z</time></trkpt><trkpt lat="39.60893981190885" lon="9.348864621133702"><ele>206.0</ele><time>2026-04-28T13:04:03.942Z</time></trkpt><trkpt lat="39.60909609955554" lon="9.348718391484915"><ele>206.66666666666669</ele><time>2026-04-28T13:04:04.942Z</time></trkpt><trkpt lat="39.60924035596149" lon="9.348581208687056"><ele>207.33333333333331</ele><time>2026-04-28T13:04:05.942Z</time></trkpt><trkpt lat="39.609360135834976" lon="9.348444008261577"><ele>208.0</ele><time>2026-04-28T13:04:06.942Z</time></trkpt><trkpt lat="39.609470201897615" lon="9.348289140068912"><ele>208.33333333333331</ele><time>2026-04-28T13:04:07.942Z</time></trkpt><trkpt lat="39.60956109388163" lon="9.34812687536594"><ele>208.66666666666669</ele><time>2026-04-28T13:04:08.942Z</time></trkpt><trkpt lat="39.60963168407051" lon="9.347947447057512"><ele>209.0</ele><time>2026-04-28T13:04:09.942Z</time></trkpt><trkpt lat="39.60968362918452" lon="9.347759792267482"><ele>209.0</ele><time>2026-04-28T13:04:10.942Z</time></trkpt><trkpt lat="39.60972367847898" lon="9.347560470193105"><ele>209.0</ele><time>2026-04-28T13:04:11.942Z</time></trkpt><trkpt lat="39.609759980208565" lon="9.347354094575705"><ele>209.0</ele><time>2026-04-28T13:04:12.942Z</time></trkpt><trkpt lat="39.60980053846181" lon="9.347157632679005"><ele>209.0</ele><time>2026-04-28T13:04:13.942Z</time></trkpt><trkpt lat="39.60984288883989" lon="9.346992749717833"><ele>209.0</ele><time>2026-04-28T13:04:14.942Z</time></trkpt><trkpt lat="39.609887440777186" lon="9.346841387339307"><ele>209.0</ele><time>2026-04-28T13:04:15.942Z</time></trkpt><trkpt lat="39.60994539264706" lon="9.346717514820284"><ele>209.0</ele><time>2026-04-28T13:04:16.942Z</time></trkpt><trkpt lat="39.61001783060903" lon="9.346608068794085"><ele>209.0</ele><time>2026-04-28T13:04:17.942Z</time></trkpt><trkpt lat="39.610114813003406" lon="9.346502654455206"><ele>209.0</ele><time>2026-04-28T13:04:18.942Z</time></trkpt><trkpt lat="39.61023232348613" lon="9.346412323403634"><ele>209.0</ele><time>2026-04-28T13:04:19.942Z</time></trkpt><trkpt lat="39.6103671315793" lon="9.34630919917446"><ele>209.0</ele><time>2026-04-28T13:04:20.942Z</time></trkpt><trkpt lat="39.61051246124295" lon="9.34621093896694"><ele>211.0</ele><time>2026-04-28T13:04:21.942Z</time></trkpt><trkpt lat="39.610663891900906" lon="9.346108884362472"><ele>213.0</ele><time>2026-04-28T13:04:22.942Z</time></trkpt><trkpt lat="39.61081579179634" lon="9.345998496213326"><ele>215.0</ele><time>2026-04-28T13:04:23.942Z</time></trkpt><trkpt lat="39.610962369731205" lon="9.345883645953442"><ele>215.0</ele><time>2026-04-28T13:04:24.942Z</time></trkpt><trkpt lat="39.61111356530838" lon="9.34575592124006"><ele>215.0</ele><time>2026-04-28T13:04:25.942Z</time></trkpt><trkpt lat="39.61125999424831" lon="9.34561528025124"><ele>215.0</ele><time>2026-04-28T13:04:26.942Z</time></trkpt><trkpt lat="39.611407763432105" lon="9.345469886780364"><ele>215.66666666666669</ele><time>2026-04-28T13:04:27.942Z</time></trkpt><trkpt lat="39.61155354340568" lon="9.345316663970975"><ele>216.33333333333331</ele><time>2026-04-28T13:04:28.942Z</time></trkpt><trkpt lat="39.611702678911655" lon="9.345158089036126"><ele>217.0</ele><time>2026-04-28T13:04:29.942Z</time></trkpt><trkpt lat="39.61185742975137" lon="9.34499462142954"><ele>217.66666666666666</ele><time>2026-04-28T13:04:30.942Z</time></trkpt><trkpt lat="39.61200574492986" lon="9.344839737262536"><ele>218.33333333333331</ele><time>2026-04-28T13:04:31.942Z</time></trkpt><trkpt lat="39.61214471573467" lon="9.344692879155092"><ele>219.0</ele><time>2026-04-28T13:04:32.942Z</time></trkpt><trkpt lat="39.612280229783494" lon="9.344556380967953"><ele>217.66666666666669</ele><time>2026-04-28T13:04:33.942Z</time></trkpt><trkpt lat="39.61241369477957" lon="9.344420011648124"><ele>216.33333333333334</ele><time>2026-04-28T13:04:34.942Z</time></trkpt><trkpt lat="39.61254221782715" lon="9.344289573121529"><ele>215.0</ele><time>2026-04-28T13:04:35.942Z</time></trkpt><trkpt lat="39.61266713433901" lon="9.344163276823352"><ele>215.0</ele><time>2026-04-28T13:04:36.942Z</time></trkpt><trkpt lat="39.612790032630144" lon="9.344038684124243"><ele>215.0</ele><time>2026-04-28T13:04:37.942Z</time></trkpt><trkpt lat="39.61292393386368" lon="9.343934856228296"><ele>215.0</ele><time>2026-04-28T13:04:38.942Z</time></trkpt><trkpt lat="39.61303172328785" lon="9.343787258783394"><ele>216.0</ele><time>2026-04-28T13:04:39.942Z</time></trkpt><trkpt lat="39.61315619117633" lon="9.3436526492314"><ele>217.0</ele><time>2026-04-28T13:04:40.942Z</time></trkpt><trkpt lat="39.6132829188817" lon="9.343513703695617"><ele>218.0</ele><time>2026-04-28T13:04:41.942Z</time></trkpt><trkpt lat="39.613412301554284" lon="9.343375878789416"><ele>218.0</ele><time>2026-04-28T13:04:42.942Z</time></trkpt><trkpt lat="39.613570064993546" lon="9.343270494784141"><ele>218.0</ele><time>2026-04-28T13:04:43.942Z</time></trkpt><trkpt lat="39.61370433566521" lon="9.343129638906985"><ele>218.0</ele><time>2026-04-28T13:04:44.942Z</time></trkpt><trkpt lat="39.6138420298353" lon="9.342984504004225"><ele>220.0</ele><time>2026-04-28T13:04:45.942Z</time></trkpt><trkpt lat="39.6139788442415" lon="9.342840296287736"><ele>222.0</ele><time>2026-04-28T13:04:46.942Z</time></trkpt><trkpt lat="39.6141115158005" lon="9.342702088508927"><ele>224.0</ele><time>2026-04-28T13:04:47.943Z</time></trkpt><trkpt lat="39.61423516185022" lon="9.342571837957472"><ele>224.0</ele><time>2026-04-28T13:04:48.943Z</time></trkpt><trkpt lat="39.6143510388749" lon="9.342448981613556"><ele>224.0</ele><time>2026-04-28T13:04:49.943Z</time></trkpt><trkpt lat="39.614460503536165" lon="9.342322581978443"><ele>224.0</ele><time>2026-04-28T13:04:50.943Z</time></trkpt><trkpt lat="39.61455965284962" lon="9.342184833507998"><ele>224.0</ele><time>2026-04-28T13:04:51.943Z</time></trkpt><trkpt lat="39.61465310770405" lon="9.342024869308176"><ele>224.33333333333334</ele><time>2026-04-28T13:04:52.943Z</time></trkpt><trkpt lat="39.6147192117672" lon="9.341831369269537"><ele>224.66666666666669</ele><time>2026-04-28T13:04:53.943Z</time></trkpt><trkpt lat="39.61481328987782" lon="9.341651064114377"><ele>225.0</ele><time>2026-04-28T13:04:54.943Z</time></trkpt><trkpt lat="39.614905215179334" lon="9.34146888697829"><ele>228.0</ele><time>2026-04-28T13:04:55.943Z</time></trkpt><trkpt lat="39.61499646055039" lon="9.34128724796658"><ele>231.0</ele><time>2026-04-28T13:04:56.943Z</time></trkpt><trkpt lat="39.61510724304166" lon="9.341124539594896"><ele>234.0</ele><time>2026-04-28T13:04:57.943Z</time></trkpt><trkpt lat="39.61519826808882" lon="9.34094241996634"><ele>234.0</ele><time>2026-04-28T13:04:58.943Z</time></trkpt><trkpt lat="39.615278416951334" lon="9.340746231927687"><ele>234.0</ele><time>2026-04-28T13:04:59.943Z</time></trkpt><trkpt lat="39.61538054311567" lon="9.340570185373032"><ele>234.0</ele><time>2026-04-28T13:05:00.943Z</time></trkpt><trkpt lat="39.615475986384624" lon="9.340385961634288"><ele>235.66666666666669</ele><time>2026-04-28T13:05:01.943Z</time></trkpt><trkpt lat="39.61557132434911" lon="9.340200516177143"><ele>237.33333333333334</ele><time>2026-04-28T13:05:02.943Z</time></trkpt><trkpt lat="39.61566975867646" lon="9.340012930080267"><ele>239.0</ele><time>2026-04-28T13:05:03.943Z</time></trkpt><trkpt lat="39.615774073020056" lon="9.339825045879833"><ele>243.33333333333334</ele><time>2026-04-28T13:05:04.943Z</time></trkpt><trkpt lat="39.615882400098464" lon="9.33963554131615"><ele>247.66666666666669</ele><time>2026-04-28T13:05:05.943Z</time></trkpt><trkpt lat="39.61599406024581" lon="9.339438639013217"><ele>252.0</ele><time>2026-04-28T13:05:06.943Z</time></trkpt><trkpt lat="39.616104726297955" lon="9.33924492857335"><ele>253.0</ele><time>2026-04-28T13:05:07.943Z</time></trkpt><trkpt lat="39.61621313843348" lon="9.339060222853004"><ele>254.0</ele><time>2026-04-28T13:05:08.943Z</time></trkpt><trkpt lat="39.61632107035974" lon="9.33886628947814"><ele>255.0</ele><time>2026-04-28T13:05:09.943Z</time></trkpt><trkpt lat="39.616434137332334" lon="9.338676530850814"><ele>255.0</ele><time>2026-04-28T13:05:10.943Z</time></trkpt><trkpt lat="39.61654036033249" lon="9.338483699729355"><ele>255.0</ele><time>2026-04-28T13:05:11.943Z</time></trkpt><trkpt lat="39.61663922305033" lon="9.3382871115664"><ele>255.0</ele><time>2026-04-28T13:05:12.943Z</time></trkpt><trkpt lat="39.616733313768826" lon="9.338081027445618"><ele>257.3333333333333</ele><time>2026-04-28T13:05:13.943Z</time></trkpt><trkpt lat="39.6168198020429" lon="9.337869174018591"><ele>259.66666666666663</ele><time>2026-04-28T13:05:14.943Z</time></trkpt><trkpt lat="39.61690509373953" lon="9.337651905835697"><ele>262.0</ele><time>2026-04-28T13:05:15.943Z</time></trkpt><trkpt lat="39.616992395204726" lon="9.337432723188648"><ele>265.3333333333333</ele><time>2026-04-28T13:05:16.943Z</time></trkpt><trkpt lat="39.61707862785635" lon="9.337216762330117"><ele>268.6666666666667</ele><time>2026-04-28T13:05:17.943Z</time></trkpt><trkpt lat="39.61716223752269" lon="9.33700589235159"><ele>272.0</ele><time>2026-04-28T13:05:18.943Z</time></trkpt><trkpt lat="39.61724340748562" lon="9.336799644895951"><ele>272.0</ele><time>2026-04-28T13:05:19.943Z</time></trkpt><trkpt lat="39.617330261882636" lon="9.336598184308421"><ele>272.0</ele><time>2026-04-28T13:05:20.943Z</time></trkpt><trkpt lat="39.61741379347743" lon="9.336425804356253"><ele>272.0</ele><time>2026-04-28T13:05:21.943Z</time></trkpt><trkpt lat="39.61750368892296" lon="9.336280618106578"><ele>273.5</ele><time>2026-04-28T13:05:22.943Z</time></trkpt><trkpt lat="39.61759718954149" lon="9.336168493678462"><ele>275.0</ele><time>2026-04-28T13:05:23.943Z</time></trkpt><trkpt lat="39.61769764924386" lon="9.33609318524719"><ele>276.5</ele><time>2026-04-28T13:05:24.943Z</time></trkpt><trkpt lat="39.61780946974237" lon="9.336044192744726"><ele>278.0</ele><time>2026-04-28T13:05:25.943Z</time></trkpt><trkpt lat="39.61793550207123" lon="9.336012314987714"><ele>278.0</ele><time>2026-04-28T13:05:26.943Z</time></trkpt><trkpt lat="39.618065350813886" lon="9.336002285279179"><ele>278.0</ele><time>2026-04-28T13:05:27.943Z</time></trkpt><trkpt lat="39.61819966903286" lon="9.336006372131344"><ele>278.0</ele><time>2026-04-28T13:05:28.943Z</time></trkpt><trkpt lat="39.61833456903581" lon="9.336013681085344"><ele>278.0</ele><time>2026-04-28T13:05:29.943Z</time></trkpt><trkpt lat="39.618457179834586" lon="9.336021422135541"><ele>278.0</ele><time>2026-04-28T13:05:30.943Z</time></trkpt><trkpt lat="39.61853769003827" lon="9.336029978032188"><ele>278.0</ele><time>2026-04-28T13:05:31.943Z</time></trkpt><trkpt lat="39.61860091521608" lon="9.336052891772335"><ele>278.0</ele><time>2026-04-28T13:05:33.943Z</time></trkpt><trkpt lat="39.618705715944905" lon="9.336083080829928"><ele>278.0</ele><time>2026-04-28T13:05:37.943Z</time></trkpt><trkpt lat="39.61878374955542" lon="9.336119793756614"><ele>278.0</ele><time>2026-04-28T13:05:38.943Z</time></trkpt><trkpt lat="39.61888031966275" lon="9.336123852382832"><ele>278.0</ele><time>2026-04-28T13:05:39.944Z</time></trkpt><trkpt lat="39.61898474468589" lon="9.33613476992519"><ele>278.0</ele><time>2026-04-28T13:05:40.944Z</time></trkpt><trkpt lat="39.6190984309404" lon="9.336164985914143"><ele>278.0</ele><time>2026-04-28T13:05:41.944Z</time></trkpt><trkpt lat="39.61921659832215" lon="9.336203309695458"><ele>278.0</ele><time>2026-04-28T13:05:42.944Z</time></trkpt><trkpt lat="39.61933401273165" lon="9.336245625439854"><ele>278.0</ele><time>2026-04-28T13:05:43.944Z</time></trkpt><trkpt lat="39.619450834400666" lon="9.336291068284945"><ele>278.5</ele><time>2026-04-28T13:05:44.944Z</time></trkpt><trkpt lat="39.61956868636481" lon="9.336351119766643"><ele>279.0</ele><time>2026-04-28T13:05:45.944Z</time></trkpt><trkpt lat="39.619673421654575" lon="9.336439483254178"><ele>279.5</ele><time>2026-04-28T13:05:46.944Z</time></trkpt><trkpt lat="39.61976951788764" lon="9.33654761373991"><ele>280.0</ele><time>2026-04-28T13:05:47.944Z</time></trkpt><trkpt lat="39.61984824255864" lon="9.336677687477579"><ele>278.5</ele><time>2026-04-28T13:05:48.944Z</time></trkpt><trkpt lat="39.61991329366205" lon="9.336824507520156"><ele>277.0</ele><time>2026-04-28T13:05:49.944Z</time></trkpt><trkpt lat="39.61996852985622" lon="9.336991335659446"><ele>275.5</ele><time>2026-04-28T13:05:50.944Z</time></trkpt><trkpt lat="39.62002418055266" lon="9.337159021348686"><ele>274.0</ele><time>2026-04-28T13:05:51.944Z</time></trkpt><trkpt lat="39.62007364266124" lon="9.33732280580398"><ele>273.75</ele><time>2026-04-28T13:05:52.944Z</time></trkpt><trkpt lat="39.62011602818263" lon="9.337492710043415"><ele>273.5</ele><time>2026-04-28T13:05:53.941Z</time></trkpt><trkpt lat="39.62014780197558" lon="9.337666398095738"><ele>273.25</ele><time>2026-04-28T13:05:54.941Z</time></trkpt><trkpt lat="39.620165829767835" lon="9.337846788722498"><ele>273.0</ele><time>2026-04-28T13:05:55.941Z</time></trkpt><trkpt lat="39.62017515265325" lon="9.338031970806682"><ele>269.6666666666667</ele><time>2026-04-28T13:05:56.941Z</time></trkpt><trkpt lat="39.62018274036084" lon="9.338229035128242"><ele>266.33333333333337</ele><time>2026-04-28T13:05:57.941Z</time></trkpt><trkpt lat="39.62018922752759" lon="9.338429739565768"><ele>263.0</ele><time>2026-04-28T13:05:58.941Z</time></trkpt><trkpt lat="39.620193837011286" lon="9.338632350484453"><ele>263.0</ele><time>2026-04-28T13:05:59.941Z</time></trkpt><trkpt lat="39.62020172535245" lon="9.338845472060799"><ele>263.0</ele><time>2026-04-28T13:06:00.941Z</time></trkpt><trkpt lat="39.620204789513515" lon="9.339057154769778"><ele>263.0</ele><time>2026-04-28T13:06:01.941Z</time></trkpt><trkpt lat="39.62020769448325" lon="9.339270765270314"><ele>260.6666666666667</ele><time>2026-04-28T13:06:02.941Z</time></trkpt><trkpt lat="39.62021649823958" lon="9.339472886210643"><ele>258.3333333333333</ele><time>2026-04-28T13:06:03.941Z</time></trkpt><trkpt lat="39.620232459947275" lon="9.339674722146272"><ele>256.0</ele><time>2026-04-28T13:06:04.941Z</time></trkpt><trkpt lat="39.62026290060386" lon="9.339872785038052"><ele>256.0</ele><time>2026-04-28T13:06:05.941Z</time></trkpt><trkpt lat="39.62030920780198" lon="9.340056356030392"><ele>256.0</ele><time>2026-04-28T13:06:06.941Z</time></trkpt><trkpt lat="39.62036953021875" lon="9.340211788912297"><ele>256.0</ele><time>2026-04-28T13:06:07.941Z</time></trkpt><trkpt lat="39.62044874758073" lon="9.340359804572957"><ele>256.0</ele><time>2026-04-28T13:06:08.941Z</time></trkpt><trkpt lat="39.62055005150365" lon="9.34050825057"><ele>257.3333333333333</ele><time>2026-04-28T13:06:09.941Z</time></trkpt><trkpt lat="39.62066556231745" lon="9.340653847137036"><ele>258.6666666666667</ele><time>2026-04-28T13:06:10.941Z</time></trkpt><trkpt lat="39.620793212522585" lon="9.340796195028801"><ele>260.0</ele><time>2026-04-28T13:06:11.941Z</time></trkpt><trkpt lat="39.62092249650557" lon="9.340950745711652"><ele>260.0</ele><time>2026-04-28T13:06:12.941Z</time></trkpt><trkpt lat="39.621045805788164" lon="9.341100059498526"><ele>260.0</ele><time>2026-04-28T13:06:13.941Z</time></trkpt><trkpt lat="39.621172677695974" lon="9.341233992614516"><ele>260.0</ele><time>2026-04-28T13:06:14.941Z</time></trkpt><trkpt lat="39.62130826470355" lon="9.341341192118557"><ele>258.33333333333337</ele><time>2026-04-28T13:06:15.941Z</time></trkpt><trkpt lat="39.62145842201398" lon="9.341431455414526"><ele>256.6666666666667</ele><time>2026-04-28T13:06:16.942Z</time></trkpt><trkpt lat="39.621617235356325" lon="9.341501207118693"><ele>255.0</ele><time>2026-04-28T13:06:17.942Z</time></trkpt><trkpt lat="39.621782671199426" lon="9.341555377490035"><ele>255.0</ele><time>2026-04-28T13:06:18.942Z</time></trkpt><trkpt lat="39.621946300880445" lon="9.341610997788816"><ele>255.0</ele><time>2026-04-28T13:06:19.942Z</time></trkpt><trkpt lat="39.62211632229243" lon="9.3416761875344"><ele>255.0</ele><time>2026-04-28T13:06:20.942Z</time></trkpt><trkpt lat="39.62226895352994" lon="9.341783081664596"><ele>255.66666666666669</ele><time>2026-04-28T13:06:21.942Z</time></trkpt><trkpt lat="39.6224249990104" lon="9.341881256581187"><ele>256.33333333333337</ele><time>2026-04-28T13:06:22.942Z</time></trkpt><trkpt lat="39.6225798605111" lon="9.3419523400295"><ele>257.0</ele><time>2026-04-28T13:06:23.942Z</time></trkpt><trkpt lat="39.622746090122995" lon="9.342028886818621"><ele>258.6666666666667</ele><time>2026-04-28T13:06:24.942Z</time></trkpt><trkpt lat="39.622917651583215" lon="9.342101859909063"><ele>260.3333333333333</ele><time>2026-04-28T13:06:25.942Z</time></trkpt><trkpt lat="39.62308832581118" lon="9.342171009852784"><ele>262.0</ele><time>2026-04-28T13:06:26.942Z</time></trkpt><trkpt lat="39.62325472708734" lon="9.342239854617262"><ele>261.0</ele><time>2026-04-28T13:06:27.942Z</time></trkpt><trkpt lat="39.62341385010245" lon="9.342315442818522"><ele>260.0</ele><time>2026-04-28T13:06:28.942Z</time></trkpt><trkpt lat="39.62356658498014" lon="9.342402644655063"><ele>259.0</ele><time>2026-04-28T13:06:29.942Z</time></trkpt><trkpt lat="39.6237082632979" lon="9.342507696821412"><ele>259.0</ele><time>2026-04-28T13:06:30.942Z</time></trkpt><trkpt lat="39.62384388311561" lon="9.342632660675388"><ele>259.0</ele><time>2026-04-28T13:06:31.942Z</time></trkpt><trkpt lat="39.623974455499905" lon="9.342759996720464"><ele>259.0</ele><time>2026-04-28T13:06:32.942Z</time></trkpt><trkpt lat="39.62410567507597" lon="9.34288827452431"><ele>259.0</ele><time>2026-04-28T13:06:33.942Z</time></trkpt><trkpt lat="39.624243094550806" lon="9.343015925865682"><ele>259.0</ele><time>2026-04-28T13:06:34.942Z</time></trkpt><trkpt lat="39.624363509865404" lon="9.343149778761246"><ele>259.0</ele><time>2026-04-28T13:06:35.942Z</time></trkpt><trkpt lat="39.624497135738146" lon="9.343267771181011"><ele>261.0</ele><time>2026-04-28T13:06:36.942Z</time></trkpt><trkpt lat="39.624640991178445" lon="9.34338659484718"><ele>263.0</ele><time>2026-04-28T13:06:37.942Z</time></trkpt><trkpt lat="39.62478810777593" lon="9.343501694621"><ele>265.0</ele><time>2026-04-28T13:06:38.942Z</time></trkpt><trkpt lat="39.62493878481793" lon="9.343613216184995"><ele>265.0</ele><time>2026-04-28T13:06:39.942Z</time></trkpt><trkpt lat="39.625089796279426" lon="9.343717628320023"><ele>265.0</ele><time>2026-04-28T13:06:40.942Z</time></trkpt><trkpt lat="39.62524032538659" lon="9.343817133436158"><ele>265.0</ele><time>2026-04-28T13:06:41.942Z</time></trkpt><trkpt lat="39.625396434019656" lon="9.34390692517844"><ele>264.3333333333333</ele><time>2026-04-28T13:06:42.942Z</time></trkpt><trkpt lat="39.62556627382148" lon="9.343973164090102"><ele>263.6666666666667</ele><time>2026-04-28T13:06:43.942Z</time></trkpt><trkpt lat="39.62573598085006" lon="9.344022568971553"><ele>263.0</ele><time>2026-04-28T13:06:44.942Z</time></trkpt><trkpt lat="39.625913080754884" lon="9.344051114334556"><ele>263.0</ele><time>2026-04-28T13:06:45.942Z</time></trkpt><trkpt lat="39.626093971309444" lon="9.3440629191086"><ele>263.0</ele><time>2026-04-28T13:06:46.942Z</time></trkpt><trkpt lat="39.62626937752042" lon="9.344054259440894"><ele>263.0</ele><time>2026-04-28T13:06:47.942Z</time></trkpt><trkpt lat="39.626443278742684" lon="9.344022064381715"><ele>265.0</ele><time>2026-04-28T13:06:48.942Z</time></trkpt><trkpt lat="39.626608531776235" lon="9.343967120924674"><ele>267.0</ele><time>2026-04-28T13:06:49.942Z</time></trkpt><trkpt lat="39.626760008535655" lon="9.343894339049212"><ele>269.0</ele><time>2026-04-28T13:06:50.942Z</time></trkpt><trkpt lat="39.62691045831771" lon="9.343805290771297"><ele>271.0</ele><time>2026-04-28T13:06:51.942Z</time></trkpt><trkpt lat="39.627062890250585" lon="9.343693060716586"><ele>273.0</ele><time>2026-04-28T13:06:52.942Z</time></trkpt><trkpt lat="39.62720995764476" lon="9.343562905430092"><ele>275.0</ele><time>2026-04-28T13:06:53.942Z</time></trkpt><trkpt lat="39.62735802557438" lon="9.343420166791038"><ele>275.0</ele><time>2026-04-28T13:06:54.942Z</time></trkpt><trkpt lat="39.62750635994056" lon="9.343276703616606"><ele>275.0</ele><time>2026-04-28T13:06:55.942Z</time></trkpt><trkpt lat="39.627663194378556" lon="9.343127951224426"><ele>275.0</ele><time>2026-04-28T13:06:56.942Z</time></trkpt><trkpt lat="39.627829542517475" lon="9.342975544807048"><ele>276.33333333333337</ele><time>2026-04-28T13:06:57.942Z</time></trkpt><trkpt lat="39.627987954693765" lon="9.342821445366418"><ele>277.6666666666667</ele><time>2026-04-28T13:06:58.942Z</time></trkpt><trkpt lat="39.62814933783086" lon="9.342669712227808"><ele>279.0</ele><time>2026-04-28T13:06:59.942Z</time></trkpt><trkpt lat="39.62831246116272" lon="9.34251893897906"><ele>279.0</ele><time>2026-04-28T13:07:00.942Z</time></trkpt><trkpt lat="39.62847094652568" lon="9.342369064643755"><ele>279.0</ele><time>2026-04-28T13:07:01.942Z</time></trkpt><trkpt lat="39.62862629132348" lon="9.34221973433166"><ele>279.0</ele><time>2026-04-28T13:07:02.942Z</time></trkpt><trkpt lat="39.62877539355869" lon="9.342077700762706"><ele>281.3333333333333</ele><time>2026-04-28T13:07:03.942Z</time></trkpt><trkpt lat="39.62892292337511" lon="9.341947045486934"><ele>283.66666666666663</ele><time>2026-04-28T13:07:04.942Z</time></trkpt><trkpt lat="39.629076230651194" lon="9.341830966547604"><ele>286.0</ele><time>2026-04-28T13:07:05.942Z</time></trkpt><trkpt lat="39.62923703251459" lon="9.341719808222829"><ele>286.0</ele><time>2026-04-28T13:07:06.942Z</time></trkpt><trkpt lat="39.62940543326486" lon="9.341620810887425"><ele>286.0</ele><time>2026-04-28T13:07:07.942Z</time></trkpt><trkpt lat="39.629576674907355" lon="9.341537021591378"><ele>286.0</ele><time>2026-04-28T13:07:08.942Z</time></trkpt><trkpt lat="39.62974585140677" lon="9.341473229888022"><ele>286.3333333333333</ele><time>2026-04-28T13:07:09.943Z</time></trkpt><trkpt lat="39.62992344137234" lon="9.341428231207825"><ele>286.6666666666667</ele><time>2026-04-28T13:07:10.943Z</time></trkpt><trkpt lat="39.63010670319482" lon="9.341395803257946"><ele>287.0</ele><time>2026-04-28T13:07:11.943Z</time></trkpt><trkpt lat="39.63029271762107" lon="9.341381363119396"><ele>289.33333333333337</ele><time>2026-04-28T13:07:12.943Z</time></trkpt><trkpt lat="39.630481804481164" lon="9.341379356703369"><ele>291.6666666666667</ele><time>2026-04-28T13:07:13.943Z</time></trkpt><trkpt lat="39.63067041917679" lon="9.341392131981614"><ele>294.0</ele><time>2026-04-28T13:07:14.943Z</time></trkpt><trkpt lat="39.630859881204465" lon="9.341417983725027"><ele>294.0</ele><time>2026-04-28T13:07:15.943Z</time></trkpt><trkpt lat="39.63105330935351" lon="9.341455339412288"><ele>294.0</ele><time>2026-04-28T13:07:16.943Z</time></trkpt><trkpt lat="39.63124205404027" lon="9.3415061021688"><ele>294.0</ele><time>2026-04-28T13:07:17.943Z</time></trkpt><trkpt lat="39.631425903677" lon="9.341568474444466"><ele>296.6666666666667</ele><time>2026-04-28T13:07:18.943Z</time></trkpt><trkpt lat="39.63160757278105" lon="9.341639943609641"><ele>299.33333333333337</ele><time>2026-04-28T13:07:19.943Z</time></trkpt><trkpt lat="39.631787771969975" lon="9.341717144429456"><ele>302.0</ele><time>2026-04-28T13:07:20.943Z</time></trkpt><trkpt lat="39.63196653853054" lon="9.34179432391184"><ele>306.0</ele><time>2026-04-28T13:07:21.943Z</time></trkpt><trkpt lat="39.63213734390839" lon="9.34188061776296"><ele>310.0</ele><time>2026-04-28T13:07:22.943Z</time></trkpt><trkpt lat="39.632301000100966" lon="9.341981705161071"><ele>314.0</ele><time>2026-04-28T13:07:23.943Z</time></trkpt><trkpt lat="39.632459081708234" lon="9.34209582006245"><ele>312.0</ele><time>2026-04-28T13:07:24.943Z</time></trkpt><trkpt lat="39.632608090493974" lon="9.342215556002332"><ele>310.0</ele><time>2026-04-28T13:07:25.943Z</time></trkpt><trkpt lat="39.63274171313759" lon="9.34234198463067"><ele>308.0</ele><time>2026-04-28T13:07:26.943Z</time></trkpt><trkpt lat="39.63285467319939" lon="9.342477853139975"><ele>314.0</ele><time>2026-04-28T13:07:27.943Z</time></trkpt><trkpt lat="39.63295393718678" lon="9.342627111734075"><ele>320.0</ele><time>2026-04-28T13:07:28.943Z</time></trkpt><trkpt lat="39.63304239524547" lon="9.34279366577652"><ele>326.0</ele><time>2026-04-28T13:07:29.943Z</time></trkpt><trkpt lat="39.63311783273241" lon="9.342963023394496"><ele>325.0</ele><time>2026-04-28T13:07:30.943Z</time></trkpt><trkpt lat="39.63318631412384" lon="9.34313771136786"><ele>324.0</ele><time>2026-04-28T13:07:31.943Z</time></trkpt><trkpt lat="39.63324262635952" lon="9.343314430271747"><ele>323.0</ele><time>2026-04-28T13:07:32.943Z</time></trkpt><trkpt lat="39.63328743214116" lon="9.343500630207835"><ele>322.0</ele><time>2026-04-28T13:07:33.943Z</time></trkpt><trkpt lat="39.63332177059281" lon="9.34369437221052"><ele>324.3333333333333</ele><time>2026-04-28T13:07:34.943Z</time></trkpt><trkpt lat="39.6333464645396" lon="9.343892368397594"><ele>326.6666666666667</ele><time>2026-04-28T13:07:35.943Z</time></trkpt><trkpt lat="39.63335962822664" lon="9.34409551291754"><ele>329.0</ele><time>2026-04-28T13:07:36.943Z</time></trkpt><trkpt lat="39.63336251151665" lon="9.344301749282327"><ele>329.0</ele><time>2026-04-28T13:07:37.943Z</time></trkpt><trkpt lat="39.6333367250967" lon="9.344509938499154"><ele>329.0</ele><time>2026-04-28T13:07:38.943Z</time></trkpt><trkpt lat="39.63333541746321" lon="9.344718870000694"><ele>329.0</ele><time>2026-04-28T13:07:39.943Z</time></trkpt><trkpt lat="39.6333141589895" lon="9.344928641243817"><ele>330.0</ele><time>2026-04-28T13:07:40.943Z</time></trkpt><trkpt lat="39.633273956696904" lon="9.345131468345697"><ele>331.0</ele><time>2026-04-28T13:07:41.943Z</time></trkpt><trkpt lat="39.63325695855106" lon="9.345345008757024"><ele>332.0</ele><time>2026-04-28T13:07:42.943Z</time></trkpt><trkpt lat="39.63324390483519" lon="9.345558557212163"><ele>332.0</ele><time>2026-04-28T13:07:43.943Z</time></trkpt><trkpt lat="39.6332348637873" lon="9.34577332900913"><ele>332.0</ele><time>2026-04-28T13:07:44.943Z</time></trkpt><trkpt lat="39.63322555861545" lon="9.345991130779566"><ele>332.0</ele><time>2026-04-28T13:07:45.943Z</time></trkpt><trkpt lat="39.633220023923315" lon="9.346198974775623"><ele>332.33333333333337</ele><time>2026-04-28T13:07:46.943Z</time></trkpt><trkpt lat="39.633221471683605" lon="9.346409113183574"><ele>332.6666666666667</ele><time>2026-04-28T13:07:47.943Z</time></trkpt><trkpt lat="39.63322827724082" lon="9.346612547043472"><ele>333.0</ele><time>2026-04-28T13:07:48.943Z</time></trkpt><trkpt lat="39.633238751601304" lon="9.346813167443095"><ele>333.0</ele><time>2026-04-28T13:07:49.943Z</time></trkpt><trkpt lat="39.633251791355185" lon="9.347019199749463"><ele>333.0</ele><time>2026-04-28T13:07:50.943Z</time></trkpt><trkpt lat="39.63326354025336" lon="9.347226991343849"><ele>333.0</ele><time>2026-04-28T13:07:51.943Z</time></trkpt><trkpt lat="39.63327928368132" lon="9.347435638459801"><ele>333.6666666666667</ele><time>2026-04-28T13:07:52.943Z</time></trkpt><trkpt lat="39.6332988631884" lon="9.347634994067977"><ele>334.33333333333337</ele><time>2026-04-28T13:07:53.943Z</time></trkpt><trkpt lat="39.633317028028095" lon="9.347831587360515"><ele>335.0</ele><time>2026-04-28T13:07:54.943Z</time></trkpt><trkpt lat="39.63331781535632" lon="9.348047041533805"><ele>335.0</ele><time>2026-04-28T13:07:55.943Z</time></trkpt><trkpt lat="39.63333397477031" lon="9.348265555761817"><ele>335.0</ele><time>2026-04-28T13:07:56.943Z</time></trkpt><trkpt lat="39.63335075593559" lon="9.348492477533304"><ele>335.0</ele><time>2026-04-28T13:07:57.943Z</time></trkpt><trkpt lat="39.63336645356585" lon="9.348708686019412"><ele>335.0</ele><time>2026-04-28T13:07:58.943Z</time></trkpt><trkpt lat="39.63338106067666" lon="9.348914607503943"><ele>335.0</ele><time>2026-04-28T13:07:59.941Z</time></trkpt><trkpt lat="39.63339522439349" lon="9.349114278363428"><ele>335.0</ele><time>2026-04-28T13:08:00.941Z</time></trkpt><trkpt lat="39.63342488805008" lon="9.349306220366245"><ele>335.0</ele><time>2026-04-28T13:08:01.941Z</time></trkpt><trkpt lat="39.63343588762259" lon="9.349486156477246"><ele>335.0</ele><time>2026-04-28T13:08:02.94Z</time></trkpt><trkpt lat="39.63344572724424" lon="9.349657237786577"><ele>335.0</ele><time>2026-04-28T13:08:03.941Z</time></trkpt><trkpt lat="39.633456167988584" lon="9.349824391920917"><ele>335.0</ele><time>2026-04-28T13:08:04.941Z</time></trkpt><trkpt lat="39.63346572213983" lon="9.349990438891668"><ele>335.0</ele><time>2026-04-28T13:08:05.941Z</time></trkpt><trkpt lat="39.6334734547849" lon="9.35015229426839"><ele>335.0</ele><time>2026-04-28T13:08:06.94Z</time></trkpt><trkpt lat="39.63348329349434" lon="9.350323417122016"><ele>335.0</ele><time>2026-04-28T13:08:07.94Z</time></trkpt><trkpt lat="39.633494072058916" lon="9.350498841246635"><ele>335.0</ele><time>2026-04-28T13:08:08.941Z</time></trkpt><trkpt lat="39.63351541919777" lon="9.350676945445707"><ele>334.75</ele><time>2026-04-28T13:08:09.94Z</time></trkpt><trkpt lat="39.633531297477006" lon="9.350852377097617"><ele>334.5</ele><time>2026-04-28T13:08:10.94Z</time></trkpt><trkpt lat="39.633545193107565" lon="9.351030704444115"><ele>334.25</ele><time>2026-04-28T13:08:11.941Z</time></trkpt><trkpt lat="39.63355787883668" lon="9.35120182760537"><ele>334.0</ele><time>2026-04-28T13:08:12.94Z</time></trkpt><trkpt lat="39.63357328635738" lon="9.351366752481061"><ele>334.75</ele><time>2026-04-28T13:08:13.94Z</time></trkpt><trkpt lat="39.63358786601521" lon="9.351534165988985"><ele>335.5</ele><time>2026-04-28T13:08:14.94Z</time></trkpt><trkpt lat="39.63360007695404" lon="9.351700321965946"><ele>336.25</ele><time>2026-04-28T13:08:15.94Z</time></trkpt><trkpt lat="39.63361157006898" lon="9.351863899613791"><ele>337.0</ele><time>2026-04-28T13:08:16.94Z</time></trkpt><trkpt lat="39.63362282497446" lon="9.352026807355132"><ele>337.0</ele><time>2026-04-28T13:08:17.94Z</time></trkpt><trkpt lat="39.63362887735437" lon="9.352180726788855"><ele>337.0</ele><time>2026-04-28T13:08:18.94Z</time></trkpt><trkpt lat="39.633630446321796" lon="9.352339454510584"><ele>337.0</ele><time>2026-04-28T13:08:19.94Z</time></trkpt><trkpt lat="39.633628261243686" lon="9.352500257074977"><ele>337.0</ele><time>2026-04-28T13:08:20.94Z</time></trkpt><trkpt lat="39.63362351030577" lon="9.35265615068478"><ele>337.5</ele><time>2026-04-28T13:08:21.94Z</time></trkpt><trkpt lat="39.63361042655087" lon="9.352813733482758"><ele>338.0</ele><time>2026-04-28T13:08:22.94Z</time></trkpt><trkpt lat="39.63357702254299" lon="9.352973593994815"><ele>338.5</ele><time>2026-04-28T13:08:23.94Z</time></trkpt><trkpt lat="39.63355374148423" lon="9.35313524065544"><ele>339.0</ele><time>2026-04-28T13:08:24.94Z</time></trkpt><trkpt lat="39.63352740750511" lon="9.353307032068166"><ele>339.6666666666667</ele><time>2026-04-28T13:08:25.94Z</time></trkpt><trkpt lat="39.63351342993566" lon="9.3534969895093"><ele>340.33333333333337</ele><time>2026-04-28T13:08:26.94Z</time></trkpt><trkpt lat="39.633482657597845" lon="9.353689945374562"><ele>341.0</ele><time>2026-04-28T13:08:27.94Z</time></trkpt><trkpt lat="39.633457630423045" lon="9.353889681326983"><ele>342.0</ele><time>2026-04-28T13:08:28.94Z</time></trkpt><trkpt lat="39.63343492621066" lon="9.35409357115765"><ele>343.0</ele><time>2026-04-28T13:08:29.94Z</time></trkpt><trkpt lat="39.63340129986294" lon="9.354300121069505"><ele>344.0</ele><time>2026-04-28T13:08:30.94Z</time></trkpt><trkpt lat="39.633385714741166" lon="9.354512604562643"><ele>345.0</ele><time>2026-04-28T13:08:31.94Z</time></trkpt><trkpt lat="39.63338084836068" lon="9.354723965521119"><ele>346.0</ele><time>2026-04-28T13:08:32.94Z</time></trkpt><trkpt lat="39.633390050786474" lon="9.354936412923092"><ele>347.0</ele><time>2026-04-28T13:08:33.94Z</time></trkpt><trkpt lat="39.633410136441064" lon="9.355149154308661"><ele>347.0</ele><time>2026-04-28T13:08:34.94Z</time></trkpt><trkpt lat="39.63343546729989" lon="9.355355270792833"><ele>347.0</ele><time>2026-04-28T13:08:35.94Z</time></trkpt><trkpt lat="39.633463304637814" lon="9.355565135804914"><ele>347.0</ele><time>2026-04-28T13:08:36.94Z</time></trkpt><trkpt lat="39.63349248777273" lon="9.355773994171082"><ele>348.33333333333337</ele><time>2026-04-28T13:08:37.94Z</time></trkpt><trkpt lat="39.633522235022426" lon="9.355975707805074"><ele>349.6666666666667</ele><time>2026-04-28T13:08:38.94Z</time></trkpt><trkpt lat="39.63355168252941" lon="9.356178709336584"><ele>351.0</ele><time>2026-04-28T13:08:39.94Z</time></trkpt><trkpt lat="39.633592072365005" lon="9.356355833114867"><ele>351.6</ele><time>2026-04-28T13:08:40.94Z</time></trkpt><trkpt lat="39.63359661450767" lon="9.356515465497155"><ele>352.20000000000005</ele><time>2026-04-28T13:08:41.94Z</time></trkpt><trkpt lat="39.63361264511947" lon="9.356657718982392"><ele>352.79999999999995</ele><time>2026-04-28T13:08:42.94Z</time></trkpt><trkpt lat="39.63362624663342" lon="9.356792092357953"><ele>353.4</ele><time>2026-04-28T13:08:43.941Z</time></trkpt><trkpt lat="39.633634418213674" lon="9.356908464190395"><ele>354.0</ele><time>2026-04-28T13:08:44.941Z</time></trkpt><trkpt lat="39.633626748494194" lon="9.35701634165141"><ele>354.0</ele><time>2026-04-28T13:08:45.941Z</time></trkpt><trkpt lat="39.63360077606031" lon="9.357115682148702"><ele>354.0</ele><time>2026-04-28T13:08:46.941Z</time></trkpt><trkpt lat="39.63355670736295" lon="9.3572002299331"><ele>354.0</ele><time>2026-04-28T13:08:47.941Z</time></trkpt><trkpt lat="39.6334988250034" lon="9.35726873528586"><ele>354.0</ele><time>2026-04-28T13:08:48.941Z</time></trkpt><trkpt lat="39.63342879479188" lon="9.35732861232671"><ele>354.0</ele><time>2026-04-28T13:08:49.941Z</time></trkpt><trkpt lat="39.633345492812154" lon="9.357379571063174"><ele>354.0</ele><time>2026-04-28T13:08:50.941Z</time></trkpt><trkpt lat="39.63324718684944" lon="9.357428184354236"><ele>355.25</ele><time>2026-04-28T13:08:51.941Z</time></trkpt><trkpt lat="39.63313501448398" lon="9.357459509642661"><ele>356.5</ele><time>2026-04-28T13:08:52.941Z</time></trkpt><trkpt lat="39.63302176006538" lon="9.357509770607402"><ele>357.75</ele><time>2026-04-28T13:08:53.941Z</time></trkpt><trkpt lat="39.632903713008076" lon="9.357562282945397"><ele>359.0</ele><time>2026-04-28T13:08:54.941Z</time></trkpt><trkpt lat="39.632779439840014" lon="9.357617758156188"><ele>359.75</ele><time>2026-04-28T13:08:55.941Z</time></trkpt><trkpt lat="39.63264586862532" lon="9.357677521231869"><ele>360.5</ele><time>2026-04-28T13:08:56.941Z</time></trkpt><trkpt lat="39.6325044065405" lon="9.35774081485422"><ele>361.25</ele><time>2026-04-28T13:08:57.941Z</time></trkpt><trkpt lat="39.63235800363936" lon="9.357806319095703"><ele>362.0</ele><time>2026-04-28T13:08:58.941Z</time></trkpt><trkpt lat="39.63221269502102" lon="9.357871333781807"><ele>362.0</ele><time>2026-04-28T13:08:59.941Z</time></trkpt><trkpt lat="39.632071289996134" lon="9.357934100294"><ele>362.0</ele><time>2026-04-28T13:09:00.941Z</time></trkpt><trkpt lat="39.631939639032176" lon="9.358003496707816"><ele>362.0</ele><time>2026-04-28T13:09:01.941Z</time></trkpt><trkpt lat="39.6318099067611" lon="9.358027201357762"><ele>362.0</ele><time>2026-04-28T13:09:02.941Z</time></trkpt><trkpt lat="39.63167861383735" lon="9.358030013828854"><ele>361.0</ele><time>2026-04-28T13:09:03.941Z</time></trkpt><trkpt lat="39.631542158489474" lon="9.358023937634597"><ele>360.0</ele><time>2026-04-28T13:09:04.941Z</time></trkpt><trkpt lat="39.63141046788819" lon="9.357984382145695"><ele>359.0</ele><time>2026-04-28T13:09:05.941Z</time></trkpt><trkpt lat="39.63128160644028" lon="9.357927751606804"><ele>358.0</ele><time>2026-04-28T13:09:06.941Z</time></trkpt><trkpt lat="39.63116164599209" lon="9.357847418129293"><ele>355.25</ele><time>2026-04-28T13:09:07.941Z</time></trkpt><trkpt lat="39.63106887430096" lon="9.357730705168716"><ele>352.5</ele><time>2026-04-28T13:09:08.941Z</time></trkpt><trkpt lat="39.63096491694404" lon="9.357644818229423"><ele>349.75</ele><time>2026-04-28T13:09:09.941Z</time></trkpt><trkpt lat="39.63086261690114" lon="9.35756278960226"><ele>347.0</ele><time>2026-04-28T13:09:10.941Z</time></trkpt><trkpt lat="39.630776801295376" lon="9.357487431091442"><ele>347.0</ele><time>2026-04-28T13:09:11.941Z</time></trkpt><trkpt lat="39.630718177256085" lon="9.357430365396317"><ele>347.0</ele><time>2026-04-28T13:09:12.941Z</time></trkpt><trkpt lat="39.630649592294205" lon="9.357445023572136"><ele>347.0</ele><time>2026-04-28T13:10:43.889Z</time></trkpt><trkpt lat="39.63070913808608" lon="9.3574891215321"><ele>347.0</ele><time>2026-04-28T13:10:45.889Z</time></trkpt><trkpt lat="39.630656715189744" lon="9.35814084111624"><ele>347.75</ele><time>2026-04-28T13:10:47.889Z</time></trkpt><trkpt lat="39.63074639669253" lon="9.358209160643892"><ele>348.5</ele><time>2026-04-28T13:10:48.889Z</time></trkpt><trkpt lat="39.630845727266085" lon="9.35828483083451"><ele>349.25</ele><time>2026-04-28T13:10:49.889Z</time></trkpt><trkpt lat="39.6309645480646" lon="9.358372400019991"><ele>350.0</ele><time>2026-04-28T13:10:50.889Z</time></trkpt><trkpt lat="39.631081770899286" lon="9.358452133415177"><ele>352.0</ele><time>2026-04-28T13:10:51.889Z</time></trkpt><trkpt lat="39.63123564646589" lon="9.358527255443354"><ele>354.0</ele><time>2026-04-28T13:10:52.889Z</time></trkpt><trkpt lat="39.631414660324985" lon="9.358578144855565"><ele>356.0</ele><time>2026-04-28T13:10:53.889Z</time></trkpt><trkpt lat="39.631563256532914" lon="9.358602109379225"><ele>356.0</ele><time>2026-04-28T13:10:54.889Z</time></trkpt><trkpt lat="39.63170062244125" lon="9.358603977824492"><ele>356.0</ele><time>2026-04-28T13:10:55.889Z</time></trkpt><trkpt lat="39.63184312039667" lon="9.358594790993214"><ele>356.0</ele><time>2026-04-28T13:10:56.889Z</time></trkpt><trkpt lat="39.63196326524774" lon="9.358583822067533"><ele>356.0</ele><time>2026-04-28T13:10:57.889Z</time></trkpt><trkpt lat="39.63208619102459" lon="9.358572599264985"><ele>356.75</ele><time>2026-04-28T13:10:58.889Z</time></trkpt><trkpt lat="39.632188525189044" lon="9.35856325661767"><ele>357.5</ele><time>2026-04-28T13:10:59.889Z</time></trkpt><trkpt lat="39.63225999505264" lon="9.358556731745075"><ele>358.25</ele><time>2026-04-28T13:11:00.889Z</time></trkpt><trkpt lat="39.632332923821345" lon="9.358534724916048"><ele>359.0</ele><time>2026-04-28T13:11:02.889Z</time></trkpt><trkpt lat="39.63232401645837" lon="9.357964943044161"><ele>359.0</ele><time>2026-04-28T13:11:03.889Z</time></trkpt><trkpt lat="39.6323229471798" lon="9.358098337231471"><ele>359.0</ele><time>2026-04-28T13:11:06.889Z</time></trkpt><trkpt lat="39.63232514656342" lon="9.35823346083402"><ele>359.0</ele><time>2026-04-28T13:11:08.889Z</time></trkpt><trkpt lat="39.63233765312141" lon="9.358379999001441"><ele>359.0</ele><time>2026-04-28T13:11:10.889Z</time></trkpt><trkpt lat="39.632313267393066" lon="9.358551998963238"><ele>359.0</ele><time>2026-04-28T13:11:12.889Z</time></trkpt><trkpt lat="39.63228525157131" lon="9.358639777789843"><ele>359.0</ele><time>2026-04-28T13:11:13.889Z</time></trkpt><trkpt lat="39.6322552542649" lon="9.358733991378369"><ele>359.0</ele><time>2026-04-28T13:11:14.889Z</time></trkpt><trkpt lat="39.63223165075805" lon="9.35882808596816"><ele>359.0</ele><time>2026-04-28T13:11:15.889Z</time></trkpt><trkpt lat="39.632203611577026" lon="9.358902779329346"><ele>359.0</ele><time>2026-04-28T13:11:16.889Z</time></trkpt><trkpt lat="39.63216263500837" lon="9.359041473003"><ele>359.0</ele><time>2026-04-28T13:11:18.889Z</time></trkpt><trkpt lat="39.63215199701405" lon="9.359148767501981"><ele>359.6</ele><time>2026-04-28T13:11:20.889Z</time></trkpt><trkpt lat="39.632199218695106" lon="9.359242930753402"><ele>360.2</ele><time>2026-04-28T13:11:22.889Z</time></trkpt><trkpt lat="39.63229750171772" lon="9.359348553314938"><ele>360.8</ele><time>2026-04-28T13:11:24.889Z</time></trkpt><trkpt lat="39.63234302865769" lon="9.359422504588274"><ele>361.40000000000003</ele><time>2026-04-28T13:11:25.889Z</time></trkpt><trkpt lat="39.63237204021534" lon="9.359556084686425"><ele>362.0</ele><time>2026-04-28T13:11:27.889Z</time></trkpt><trkpt lat="39.63235965989636" lon="9.359726160555603"><ele>362.0</ele><time>2026-04-28T13:11:29.889Z</time></trkpt><trkpt lat="39.6323398968938" lon="9.359813348265149"><ele>362.0</ele><time>2026-04-28T13:11:30.889Z</time></trkpt><trkpt lat="39.63231925903227" lon="9.359960978116321"><ele>362.0</ele><time>2026-04-28T13:11:32.889Z</time></trkpt><trkpt lat="39.63232990230252" lon="9.36005310840687"><ele>362.0</ele><time>2026-04-28T13:11:34.889Z</time></trkpt><trkpt lat="39.63239135709832" lon="9.360121940995652"><ele>362.0</ele><time>2026-04-28T13:11:36.889Z</time></trkpt><trkpt lat="39.6324567972063" lon="9.360165265119754"><ele>362.0</ele><time>2026-04-28T13:11:37.889Z</time></trkpt><trkpt lat="39.63253997951039" lon="9.360199514086977"><ele>362.0</ele><time>2026-04-28T13:11:38.89Z</time></trkpt><trkpt lat="39.63263198944721" lon="9.36022959335361"><ele>362.0</ele><time>2026-04-28T13:11:39.89Z</time></trkpt><trkpt lat="39.6327171965829" lon="9.360281909648206"><ele>362.0</ele><time>2026-04-28T13:11:40.89Z</time></trkpt><trkpt lat="39.63279314270579" lon="9.3603596370525"><ele>362.0</ele><time>2026-04-28T13:11:41.89Z</time></trkpt><trkpt lat="39.632861896775545" lon="9.36043373500132"><ele>362.0</ele><time>2026-04-28T13:11:42.89Z</time></trkpt><trkpt lat="39.632927306237086" lon="9.360523864550828"><ele>360.20000000000005</ele><time>2026-04-28T13:11:43.89Z</time></trkpt><trkpt lat="39.6330401717659" lon="9.360643827920757"><ele>358.4</ele><time>2026-04-28T13:11:45.89Z</time></trkpt><trkpt lat="39.63311455136875" lon="9.360706695038367"><ele>356.6</ele><time>2026-04-28T13:11:46.89Z</time></trkpt><trkpt lat="39.633200225590734" lon="9.360762561187112"><ele>354.79999999999995</ele><time>2026-04-28T13:11:47.89Z</time></trkpt><trkpt lat="39.63326896019954" lon="9.360838462211634"><ele>353.0</ele><time>2026-04-28T13:11:48.89Z</time></trkpt><trkpt lat="39.6333287442003" lon="9.36093148595037"><ele>353.0</ele><time>2026-04-28T13:11:49.89Z</time></trkpt><trkpt lat="39.63337878653925" lon="9.361040720496943"><ele>353.0</ele><time>2026-04-28T13:11:50.89Z</time></trkpt><trkpt lat="39.63339791689531" lon="9.361151009869582"><ele>353.0</ele><time>2026-04-28T13:11:51.89Z</time></trkpt><trkpt lat="39.63340051760209" lon="9.361243641660193"><ele>353.0</ele><time>2026-04-28T13:11:52.89Z</time></trkpt><trkpt lat="39.633414628799585" lon="9.361417042661317"><ele>353.0</ele><time>2026-04-28T13:11:54.89Z</time></trkpt><trkpt lat="39.63340496851288" lon="9.361504178595581"><ele>352.79999999999995</ele><time>2026-04-28T13:11:55.89Z</time></trkpt><trkpt lat="39.633415088211656" lon="9.361600136909477"><ele>352.6</ele><time>2026-04-28T13:11:56.89Z</time></trkpt><trkpt lat="39.63343267254933" lon="9.361715029219813"><ele>352.4</ele><time>2026-04-28T13:11:57.89Z</time></trkpt><trkpt lat="39.633466364922775" lon="9.36185281311606"><ele>352.20000000000005</ele><time>2026-04-28T13:11:58.89Z</time></trkpt><trkpt lat="39.633509254744155" lon="9.361958741575325"><ele>352.0</ele><time>2026-04-28T13:11:59.89Z</time></trkpt><trkpt lat="39.633585094577896" lon="9.362061331222714"><ele>346.5</ele><time>2026-04-28T13:12:00.89Z</time></trkpt><trkpt lat="39.633668625274886" lon="9.362161071154778"><ele>341.0</ele><time>2026-04-28T13:12:01.89Z</time></trkpt><trkpt lat="39.63375629763065" lon="9.36226775697445"><ele>335.5</ele><time>2026-04-28T13:12:02.89Z</time></trkpt><trkpt lat="39.63384986329453" lon="9.362385676113378"><ele>330.0</ele><time>2026-04-28T13:12:03.89Z</time></trkpt><trkpt lat="39.63393131655269" lon="9.362490430568503"><ele>330.0</ele><time>2026-04-28T13:12:04.89Z</time></trkpt><trkpt lat="39.63400940554704" lon="9.362596503849648"><ele>330.0</ele><time>2026-04-28T13:12:05.89Z</time></trkpt><trkpt lat="39.63408292380319" lon="9.362719015095182"><ele>330.0</ele><time>2026-04-28T13:12:06.89Z</time></trkpt><trkpt lat="39.634150248325035" lon="9.362845631107366"><ele>330.0</ele><time>2026-04-28T13:12:07.89Z</time></trkpt><trkpt lat="39.6342018544889" lon="9.362959485837267"><ele>330.5</ele><time>2026-04-28T13:12:08.89Z</time></trkpt><trkpt lat="39.63423626195538" lon="9.363059586489063"><ele>331.0</ele><time>2026-04-28T13:12:09.89Z</time></trkpt><trkpt lat="39.63427322868281" lon="9.363176158969926"><ele>331.5</ele><time>2026-04-28T13:12:10.89Z</time></trkpt><trkpt lat="39.6342631022826" lon="9.363273822117232"><ele>332.0</ele><time>2026-04-28T13:12:11.889Z</time></trkpt><trkpt lat="39.634259326225184" lon="9.36338253332564"><ele>332.5</ele><time>2026-04-28T13:12:12.888Z</time></trkpt><trkpt lat="39.63425889131992" lon="9.363521560932728"><ele>333.0</ele><time>2026-04-28T13:12:13.888Z</time></trkpt><trkpt lat="39.634262804765505" lon="9.363636193375598"><ele>333.0</ele><time>2026-04-28T13:12:14.888Z</time></trkpt><trkpt lat="39.63427776556406" lon="9.363745364083892"><ele>333.0</ele><time>2026-04-28T13:12:15.889Z</time></trkpt><trkpt lat="39.63431969423487" lon="9.363838032180961"><ele>333.0</ele><time>2026-04-28T13:12:16.889Z</time></trkpt><trkpt lat="39.634340163252126" lon="9.363981339792426"><ele>333.0</ele><time>2026-04-28T13:12:17.889Z</time></trkpt><trkpt lat="39.63436999304198" lon="9.364124427548049"><ele>333.0</ele><time>2026-04-28T13:12:18.888Z</time></trkpt><trkpt lat="39.634417706168676" lon="9.364244978512277"><ele>332.59999999999997</ele><time>2026-04-28T13:12:19.888Z</time></trkpt><trkpt lat="39.63445238039988" lon="9.364361368295071"><ele>332.2</ele><time>2026-04-28T13:12:20.888Z</time></trkpt><trkpt lat="39.634491951440985" lon="9.364478758274386"><ele>331.8</ele><time>2026-04-28T13:12:21.889Z</time></trkpt><trkpt lat="39.63452672306987" lon="9.364588592852309"><ele>331.4</ele><time>2026-04-28T13:12:22.889Z</time></trkpt><trkpt lat="39.63460519432488" lon="9.364661258714587"><ele>331.0</ele><time>2026-04-28T13:12:23.888Z</time></trkpt><trkpt lat="39.63469154902161" lon="9.36474200789336"><ele>331.0</ele><time>2026-04-28T13:12:24.889Z</time></trkpt><trkpt lat="39.63476585744681" lon="9.364811440530907"><ele>331.0</ele><time>2026-04-28T13:12:25.889Z</time></trkpt><trkpt lat="39.63483037696145" lon="9.36486168991473"><ele>331.0</ele><time>2026-04-28T13:12:26.889Z</time></trkpt><trkpt lat="39.634891815260254" lon="9.364891637485865"><ele>331.0</ele><time>2026-04-28T13:12:27.889Z</time></trkpt><trkpt lat="39.63500688361115" lon="9.364918451854523"><ele>331.0</ele><time>2026-04-28T13:12:29.889Z</time></trkpt><trkpt lat="39.63509059192673" lon="9.364917114013583"><ele>331.0</ele><time>2026-04-28T13:12:30.889Z</time></trkpt><trkpt lat="39.63516766830493" lon="9.364914754673176"><ele>331.0</ele><time>2026-04-28T13:12:31.889Z</time></trkpt><trkpt lat="39.63523499532873" lon="9.364931750012605"><ele>331.0</ele><time>2026-04-28T13:12:32.889Z</time></trkpt><trkpt lat="39.63530760280031" lon="9.364982039856704"><ele>331.0</ele><time>2026-04-28T13:12:33.889Z</time></trkpt><trkpt lat="39.63538410665725" lon="9.365047294005132"><ele>331.0</ele><time>2026-04-28T13:12:34.889Z</time></trkpt><trkpt lat="39.635448797150005" lon="9.365102343198963"><ele>331.0</ele><time>2026-04-28T13:12:35.889Z</time></trkpt><trkpt lat="39.63551206144274" lon="9.365131154131571"><ele>331.0</ele><time>2026-04-28T13:12:36.889Z</time></trkpt><trkpt lat="39.63558899818266" lon="9.365123970378871"><ele>330.66666666666663</ele><time>2026-04-28T13:12:37.889Z</time></trkpt><trkpt lat="39.635668992942335" lon="9.365103020976493"><ele>330.3333333333333</ele><time>2026-04-28T13:12:38.889Z</time></trkpt><trkpt lat="39.63575267292467" lon="9.365077707864266"><ele>330.0</ele><time>2026-04-28T13:12:39.889Z</time></trkpt><trkpt lat="39.63583020459072" lon="9.365070143737038"><ele>329.6666666666667</ele><time>2026-04-28T13:12:40.889Z</time></trkpt><trkpt lat="39.63589205215932" lon="9.365101513624385"><ele>329.33333333333337</ele><time>2026-04-28T13:12:41.889Z</time></trkpt><trkpt lat="39.63597106187483" lon="9.365230129553042"><ele>329.0</ele><time>2026-04-28T13:12:43.889Z</time></trkpt><trkpt lat="39.63599852016352" lon="9.36533210933302"><ele>329.0</ele><time>2026-04-28T13:12:44.889Z</time></trkpt><trkpt lat="39.636033860768244" lon="9.36542906577597"><ele>329.0</ele><time>2026-04-28T13:12:45.889Z</time></trkpt><trkpt lat="39.636084034964256" lon="9.36554133449999"><ele>329.0</ele><time>2026-04-28T13:12:46.889Z</time></trkpt><trkpt lat="39.63612425833998" lon="9.36562920208163"><ele>329.0</ele><time>2026-04-28T13:12:47.889Z</time></trkpt><trkpt lat="39.636162647928316" lon="9.36570864711306"><ele>329.0</ele><time>2026-04-28T13:12:48.889Z</time></trkpt><trkpt lat="39.6361997202703" lon="9.365788697578127"><ele>329.0</ele><time>2026-04-28T13:12:49.889Z</time></trkpt><trkpt lat="39.63624408798592" lon="9.365864679757358"><ele>325.6666666666667</ele><time>2026-04-28T13:12:50.889Z</time></trkpt><trkpt lat="39.63626533068856" lon="9.365945142555708"><ele>322.33333333333337</ele><time>2026-04-28T13:12:51.889Z</time></trkpt><trkpt lat="39.63623975269512" lon="9.366049483168313"><ele>319.0</ele><time>2026-04-28T13:12:52.889Z</time></trkpt><trkpt lat="39.63623160373605" lon="9.366156723863233"><ele>315.6666666666667</ele><time>2026-04-28T13:12:53.889Z</time></trkpt><trkpt lat="39.636225154490866" lon="9.366266593146975"><ele>312.3333333333333</ele><time>2026-04-28T13:12:54.889Z</time></trkpt><trkpt lat="39.63621816577789" lon="9.366377505028884"><ele>309.0</ele><time>2026-04-28T13:12:55.889Z</time></trkpt><trkpt lat="39.63621333407816" lon="9.366487150352544"><ele>308.0</ele><time>2026-04-28T13:12:56.889Z</time></trkpt><trkpt lat="39.63621355854507" lon="9.366589320481438"><ele>307.0</ele><time>2026-04-28T13:12:57.889Z</time></trkpt><trkpt lat="39.636243442380746" lon="9.366697591287469"><ele>306.0</ele><time>2026-04-28T13:12:58.889Z</time></trkpt><trkpt lat="39.636260996178315" lon="9.36681113342193"><ele>305.0</ele><time>2026-04-28T13:12:59.889Z</time></trkpt><trkpt lat="39.636289433078645" lon="9.36691779912052"><ele>304.0</ele><time>2026-04-28T13:13:00.889Z</time></trkpt><trkpt lat="39.63630919099773" lon="9.36703950987265"><ele>303.0</ele><time>2026-04-28T13:13:01.889Z</time></trkpt><trkpt lat="39.63633036755764" lon="9.367148750502386"><ele>303.3333333333333</ele><time>2026-04-28T13:13:02.889Z</time></trkpt><trkpt lat="39.63634301878062" lon="9.367263923932324"><ele>303.6666666666667</ele><time>2026-04-28T13:13:03.889Z</time></trkpt><trkpt lat="39.63636850863206" lon="9.367364514990282"><ele>304.0</ele><time>2026-04-28T13:13:04.889Z</time></trkpt><trkpt lat="39.6363986349646" lon="9.367455177610607"><ele>304.33333333333337</ele><time>2026-04-28T13:13:05.889Z</time></trkpt><trkpt lat="39.63643592315258" lon="9.367537309033633"><ele>304.6666666666667</ele><time>2026-04-28T13:13:06.889Z</time></trkpt><trkpt lat="39.63649108187935" lon="9.367601222956413"><ele>305.0</ele><time>2026-04-28T13:13:07.889Z</time></trkpt><trkpt lat="39.636558137906036" lon="9.367632615213692"><ele>305.0</ele><time>2026-04-28T13:13:08.889Z</time></trkpt><trkpt lat="39.636620946738724" lon="9.367643781383114"><ele>305.0</ele><time>2026-04-28T13:13:11.889Z</time></trkpt><trkpt lat="39.63667209035086" lon="9.367698455023197"><ele>305.0</ele><time>2026-04-28T13:13:13.889Z</time></trkpt><trkpt lat="39.63671123966845" lon="9.36776803513008"><ele>305.0</ele><time>2026-04-28T13:13:14.889Z</time></trkpt><trkpt lat="39.63674695840045" lon="9.367848254738108"><ele>305.0</ele><time>2026-04-28T13:13:15.889Z</time></trkpt><trkpt lat="39.63677912389418" lon="9.367970940364831"><ele>305.0</ele><time>2026-04-28T13:13:16.889Z</time></trkpt><trkpt lat="39.636801475050106" lon="9.368096401371016"><ele>305.4</ele><time>2026-04-28T13:13:17.889Z</time></trkpt><trkpt lat="39.63682195957816" lon="9.368221038692464"><ele>305.8</ele><time>2026-04-28T13:13:18.889Z</time></trkpt><trkpt lat="39.636842760349985" lon="9.368349185385044"><ele>306.2</ele><time>2026-04-28T13:13:19.889Z</time></trkpt><trkpt lat="39.6368261650865" lon="9.368475210481016"><ele>306.6</ele><time>2026-04-28T13:13:20.889Z</time></trkpt><trkpt lat="39.636829928956985" lon="9.368607819989272"><ele>307.0</ele><time>2026-04-28T13:13:21.889Z</time></trkpt><trkpt lat="39.63683543333625" lon="9.36873687192686"><ele>305.8</ele><time>2026-04-28T13:13:22.889Z</time></trkpt><trkpt lat="39.63685721518673" lon="9.368863264838302"><ele>304.6</ele><time>2026-04-28T13:13:23.889Z</time></trkpt><trkpt lat="39.636862386957766" lon="9.368979870630364"><ele>303.40000000000003</ele><time>2026-04-28T13:13:24.889Z</time></trkpt><trkpt lat="39.63686273646495" lon="9.36909632038543"><ele>302.2</ele><time>2026-04-28T13:13:25.889Z</time></trkpt><trkpt lat="39.63683385433804" lon="9.36920477054848"><ele>301.0</ele><time>2026-04-28T13:13:26.889Z</time></trkpt><trkpt lat="39.63679394771621" lon="9.369305852686782"><ele>301.0</ele><time>2026-04-28T13:13:27.889Z</time></trkpt><trkpt lat="39.63675477840776" lon="9.369415293075708"><ele>301.0</ele><time>2026-04-28T13:13:28.889Z</time></trkpt><trkpt lat="39.636724574518766" lon="9.369534600615722"><ele>301.0</ele><time>2026-04-28T13:13:29.889Z</time></trkpt><trkpt lat="39.63665667427156" lon="9.369663384461449"><ele>301.0</ele><time>2026-04-28T13:13:30.889Z</time></trkpt><trkpt lat="39.636610524157675" lon="9.369773395535411"><ele>301.0</ele><time>2026-04-28T13:13:31.889Z</time></trkpt><trkpt lat="39.636541824784615" lon="9.369883229210737"><ele>298.40000000000003</ele><time>2026-04-28T13:13:32.889Z</time></trkpt><trkpt lat="39.63646510710982" lon="9.369985865537794"><ele>295.8</ele><time>2026-04-28T13:13:33.89Z</time></trkpt><trkpt lat="39.63639817256467" lon="9.370101770669141"><ele>293.20000000000005</ele><time>2026-04-28T13:13:34.89Z</time></trkpt><trkpt lat="39.636343466867885" lon="9.370213843462935"><ele>290.6</ele><time>2026-04-28T13:13:35.89Z</time></trkpt><trkpt lat="39.63631214360076" lon="9.370318513158095"><ele>288.0</ele><time>2026-04-28T13:13:36.89Z</time></trkpt><trkpt lat="39.63630663633491" lon="9.370404957919186"><ele>284.8</ele><time>2026-04-28T13:13:37.89Z</time></trkpt><trkpt lat="39.63631363048319" lon="9.370594396114667"><ele>281.6</ele><time>2026-04-28T13:13:39.89Z</time></trkpt><trkpt lat="39.63633499527424" lon="9.37071098490755"><ele>278.4</ele><time>2026-04-28T13:13:40.89Z</time></trkpt><trkpt lat="39.63636160311793" lon="9.370834237607326"><ele>275.2</ele><time>2026-04-28T13:13:41.89Z</time></trkpt><trkpt lat="39.63635638309706" lon="9.370945262168478"><ele>272.0</ele><time>2026-04-28T13:13:42.89Z</time></trkpt><trkpt lat="39.636350316971594" lon="9.371055684562107"><ele>272.0</ele><time>2026-04-28T13:13:43.89Z</time></trkpt><trkpt lat="39.63633391208015" lon="9.371173107870812"><ele>272.0</ele><time>2026-04-28T13:13:44.89Z</time></trkpt><trkpt lat="39.63630315680047" lon="9.371282382337224"><ele>272.0</ele><time>2026-04-28T13:13:45.89Z</time></trkpt><trkpt lat="39.63626090218378" lon="9.371403729495846"><ele>272.0</ele><time>2026-04-28T13:13:46.89Z</time></trkpt><trkpt lat="39.63621694267207" lon="9.371527765165329"><ele>272.0</ele><time>2026-04-28T13:13:47.89Z</time></trkpt><trkpt lat="39.63619587174983" lon="9.371656740869117"><ele>271.8</ele><time>2026-04-28T13:13:48.89Z</time></trkpt><trkpt lat="39.636147229099166" lon="9.37176463268027"><ele>271.6</ele><time>2026-04-28T13:13:49.89Z</time></trkpt><trkpt lat="39.636119678849084" lon="9.371892228591447"><ele>271.40000000000003</ele><time>2026-04-28T13:13:50.89Z</time></trkpt><trkpt lat="39.636097359458496" lon="9.37203694468053"><ele>271.2</ele><time>2026-04-28T13:13:51.89Z</time></trkpt><trkpt lat="39.63608642950755" lon="9.372172845184659"><ele>271.0</ele><time>2026-04-28T13:13:52.89Z</time></trkpt><trkpt lat="39.636056136204274" lon="9.37231620486733"><ele>270.3333333333333</ele><time>2026-04-28T13:13:53.89Z</time></trkpt><trkpt lat="39.6360616516128" lon="9.372411582703645"><ele>269.66666666666663</ele><time>2026-04-28T13:13:54.89Z</time></trkpt><trkpt lat="39.63603298780265" lon="9.37250902188202"><ele>269.0</ele><time>2026-04-28T13:13:55.89Z</time></trkpt><trkpt lat="39.63598609793172" lon="9.372598200591602"><ele>268.3333333333333</ele><time>2026-04-28T13:13:56.89Z</time></trkpt><trkpt lat="39.635941147863605" lon="9.372698876698605"><ele>267.6666666666667</ele><time>2026-04-28T13:13:57.89Z</time></trkpt><trkpt lat="39.635910083555025" lon="9.372808899964493"><ele>267.0</ele><time>2026-04-28T13:13:58.89Z</time></trkpt><trkpt lat="39.63586558948169" lon="9.372904172243294"><ele>267.0</ele><time>2026-04-28T13:13:59.89Z</time></trkpt><trkpt lat="39.63583487116326" lon="9.372989564370645"><ele>267.0</ele><time>2026-04-28T13:14:00.89Z</time></trkpt><trkpt lat="39.63580327977401" lon="9.37306119201445"><ele>267.0</ele><time>2026-04-28T13:14:01.89Z</time></trkpt><trkpt lat="39.6357971514684" lon="9.373143514405308"><ele>267.0</ele><time>2026-04-28T13:14:02.89Z</time></trkpt><trkpt lat="39.63582713205312" lon="9.373245549168185"><ele>267.0</ele><time>2026-04-28T13:14:03.89Z</time></trkpt><trkpt lat="39.635888138653854" lon="9.373326266922103"><ele>267.0</ele><time>2026-04-28T13:14:04.89Z</time></trkpt><trkpt lat="39.63595969611996" lon="9.373400291451636"><ele>265.8</ele><time>2026-04-28T13:14:05.89Z</time></trkpt><trkpt lat="39.63603590087106" lon="9.373476792938495"><ele>264.6</ele><time>2026-04-28T13:14:06.89Z</time></trkpt><trkpt lat="39.636134223579916" lon="9.373544656468496"><ele>263.40000000000003</ele><time>2026-04-28T13:14:07.89Z</time></trkpt><trkpt lat="39.636217523375926" lon="9.373642732407735"><ele>262.2</ele><time>2026-04-28T13:14:08.89Z</time></trkpt><trkpt lat="39.63630121595786" lon="9.373739699803892"><ele>261.0</ele><time>2026-04-28T13:14:09.89Z</time></trkpt><trkpt lat="39.63637079009129" lon="9.373836505031738"><ele>254.25</ele><time>2026-04-28T13:14:10.89Z</time></trkpt><trkpt lat="39.6364577002287" lon="9.373948428911893"><ele>247.5</ele><time>2026-04-28T13:14:11.89Z</time></trkpt><trkpt lat="39.6365408906822" lon="9.374065535478081"><ele>240.75</ele><time>2026-04-28T13:14:12.89Z</time></trkpt><trkpt lat="39.63658576704976" lon="9.37420198612342"><ele>234.0</ele><time>2026-04-28T13:14:13.89Z</time></trkpt><trkpt lat="39.63662494692434" lon="9.374309503134082"><ele>234.0</ele><time>2026-04-28T13:14:14.89Z</time></trkpt><trkpt lat="39.63666158800451" lon="9.374431830460926"><ele>234.0</ele><time>2026-04-28T13:14:15.89Z</time></trkpt><trkpt lat="39.63669009779449" lon="9.374571144049375"><ele>234.0</ele><time>2026-04-28T13:14:16.89Z</time></trkpt><trkpt lat="39.63673057330638" lon="9.374723976154566"><ele>234.0</ele><time>2026-04-28T13:14:17.887Z</time></trkpt><trkpt lat="39.63677130593795" lon="9.374867427074927"><ele>232.83333333333334</ele><time>2026-04-28T13:14:18.888Z</time></trkpt><trkpt lat="39.63679934586471" lon="9.374975330039577"><ele>231.66666666666669</ele><time>2026-04-28T13:14:19.888Z</time></trkpt><trkpt lat="39.63682087694022" lon="9.37505817016418"><ele>230.5</ele><time>2026-04-28T13:14:20.888Z</time></trkpt><trkpt lat="39.63683548413129" lon="9.37517295556236"><ele>229.33333333333334</ele><time>2026-04-28T13:14:22.887Z</time></trkpt><trkpt lat="39.636779611732095" lon="9.37522368477325"><ele>228.16666666666669</ele><time>2026-04-28T13:14:23.888Z</time></trkpt><trkpt lat="39.636670844247185" lon="9.375278302812713"><ele>227.0</ele><time>2026-04-28T13:14:25.888Z</time></trkpt><trkpt lat="39.63658667871168" lon="9.375248943203434"><ele>227.00000000000003</ele><time>2026-04-28T13:14:26.888Z</time></trkpt><trkpt lat="39.63648895633923" lon="9.375234693517337"><ele>227.0</ele><time>2026-04-28T13:14:27.888Z</time></trkpt><trkpt lat="39.636392476407345" lon="9.375233184894153"><ele>227.0</ele><time>2026-04-28T13:14:28.888Z</time></trkpt><trkpt lat="39.63631899949645" lon="9.375246488936389"><ele>227.0</ele><time>2026-04-28T13:14:29.888Z</time></trkpt><trkpt lat="39.63624117955205" lon="9.375326647396136"><ele>227.00000000000003</ele><time>2026-04-28T13:14:31.887Z</time></trkpt><trkpt lat="39.63621483046487" lon="9.375412676352303"><ele>227.0</ele><time>2026-04-28T13:14:32.887Z</time></trkpt><trkpt lat="39.63618574359686" lon="9.37552826416198"><ele>225.6</ele><time>2026-04-28T13:14:33.887Z</time></trkpt><trkpt lat="39.636141209156406" lon="9.375684208551503"><ele>224.2</ele><time>2026-04-28T13:14:34.887Z</time></trkpt><trkpt lat="39.63605735601813" lon="9.37576876720883"><ele>222.8</ele><time>2026-04-28T13:14:35.887Z</time></trkpt><trkpt lat="39.63597944485911" lon="9.375855581935747"><ele>221.4</ele><time>2026-04-28T13:14:36.887Z</time></trkpt><trkpt lat="39.63590304970212" lon="9.3759540658439"><ele>220.0</ele><time>2026-04-28T13:14:37.887Z</time></trkpt><trkpt lat="39.63580952941043" lon="9.376011930001722"><ele>220.0</ele><time>2026-04-28T13:14:38.887Z</time></trkpt><trkpt lat="39.63571783692949" lon="9.37607882778704"><ele>220.0</ele><time>2026-04-28T13:14:39.887Z</time></trkpt><trkpt lat="39.63563280532734" lon="9.376169457996788"><ele>220.0</ele><time>2026-04-28T13:14:40.887Z</time></trkpt><trkpt lat="39.63554434139002" lon="9.37624304765656"><ele>220.0</ele><time>2026-04-28T13:14:41.887Z</time></trkpt><trkpt lat="39.63546252165471" lon="9.37630502292986"><ele>220.0</ele><time>2026-04-28T13:14:42.887Z</time></trkpt><trkpt lat="39.63540243021143" lon="9.376356982523841"><ele>217.8</ele><time>2026-04-28T13:14:43.887Z</time></trkpt><trkpt lat="39.635343840600925" lon="9.37642479408668"><ele>215.6</ele><time>2026-04-28T13:14:44.887Z</time></trkpt><trkpt lat="39.635292578826764" lon="9.376529915175148"><ele>213.39999999999998</ele><time>2026-04-28T13:14:45.887Z</time></trkpt><trkpt lat="39.635220449182114" lon="9.376670652034909"><ele>211.2</ele><time>2026-04-28T13:14:46.887Z</time></trkpt><trkpt lat="39.63512864721057" lon="9.376815702378078"><ele>209.0</ele><time>2026-04-28T13:14:47.887Z</time></trkpt><trkpt lat="39.635044667019336" lon="9.376942047536016"><ele>209.0</ele><time>2026-04-28T13:14:48.887Z</time></trkpt><trkpt lat="39.63496297796828" lon="9.377067543613208"><ele>209.0</ele><time>2026-04-28T13:14:49.887Z</time></trkpt><trkpt lat="39.63488168125404" lon="9.37720309017636"><ele>209.0</ele><time>2026-04-28T13:14:50.887Z</time></trkpt><trkpt lat="39.63479781114759" lon="9.377346033063295"><ele>209.0</ele><time>2026-04-28T13:14:51.887Z</time></trkpt><trkpt lat="39.63471234679242" lon="9.377472175774646"><ele>202.75</ele><time>2026-04-28T13:14:52.887Z</time></trkpt><trkpt lat="39.634643435905396" lon="9.377573886548822"><ele>196.5</ele><time>2026-04-28T13:14:53.887Z</time></trkpt><trkpt lat="39.63459140981386" lon="9.377658362160185"><ele>190.25</ele><time>2026-04-28T13:14:54.887Z</time></trkpt><trkpt lat="39.63451944616172" lon="9.37776989237102"><ele>184.0</ele><time>2026-04-28T13:14:55.887Z</time></trkpt><trkpt lat="39.63436819337873" lon="9.377776237042843"><ele>184.0</ele><time>2026-04-28T13:14:57.887Z</time></trkpt><trkpt lat="39.63430631916025" lon="9.377719973331454"><ele>184.0</ele><time>2026-04-28T13:14:58.888Z</time></trkpt><trkpt lat="39.63423086613755" lon="9.37769084705053"><ele>184.0</ele><time>2026-04-28T13:14:59.888Z</time></trkpt><trkpt lat="39.63415139018213" lon="9.377710490931713"><ele>184.0</ele><time>2026-04-28T13:15:01.888Z</time></trkpt><trkpt lat="39.63416671977566" lon="9.377884239920823"><ele>184.0</ele><time>2026-04-28T13:15:05.888Z</time></trkpt><trkpt lat="39.63422225015008" lon="9.377960738058022"><ele>180.2</ele><time>2026-04-28T13:15:06.888Z</time></trkpt><trkpt lat="39.634305378966715" lon="9.378054286047428"><ele>176.39999999999998</ele><time>2026-04-28T13:15:08.888Z</time></trkpt><trkpt lat="39.63437702002758" lon="9.378162760840306"><ele>172.6</ele><time>2026-04-28T13:15:10.888Z</time></trkpt><trkpt lat="39.634418444901634" lon="9.378240168689745"><ele>168.8</ele><time>2026-04-28T13:15:11.888Z</time></trkpt><trkpt lat="39.63444700785908" lon="9.378342504543902"><ele>165.0</ele><time>2026-04-28T13:15:12.888Z</time></trkpt><trkpt lat="39.63447735588332" lon="9.378447525500087"><ele>165.0</ele><time>2026-04-28T13:15:13.888Z</time></trkpt><trkpt lat="39.63451107291456" lon="9.378530468065792"><ele>165.0</ele><time>2026-04-28T13:15:14.888Z</time></trkpt><trkpt lat="39.6345436170829" lon="9.378616707609487"><ele>165.0</ele><time>2026-04-28T13:15:15.888Z</time></trkpt><trkpt lat="39.634552949377564" lon="9.378760355263388"><ele>165.0</ele><time>2026-04-28T13:15:17.888Z</time></trkpt><trkpt lat="39.63451555880634" lon="9.378917102089142"><ele>165.0</ele><time>2026-04-28T13:15:19.888Z</time></trkpt><trkpt lat="39.63448401910786" lon="9.379019453887794"><ele>164.6</ele><time>2026-04-28T13:15:20.888Z</time></trkpt><trkpt lat="39.63445385284046" lon="9.379132447112182"><ele>164.2</ele><time>2026-04-28T13:15:21.888Z</time></trkpt><trkpt lat="39.63441840665482" lon="9.379260376249496"><ele>163.8</ele><time>2026-04-28T13:15:22.888Z</time></trkpt><trkpt lat="39.6343835977761" lon="9.379398657084938"><ele>163.4</ele><time>2026-04-28T13:15:23.888Z</time></trkpt><trkpt lat="39.63434119800059" lon="9.379525838077074"><ele>163.0</ele><time>2026-04-28T13:15:24.888Z</time></trkpt><trkpt lat="39.63427223755737" lon="9.379625184811815"><ele>162.20000000000002</ele><time>2026-04-28T13:15:25.888Z</time></trkpt><trkpt lat="39.63423073003055" lon="9.379726982857802"><ele>161.4</ele><time>2026-04-28T13:15:26.888Z</time></trkpt><trkpt lat="39.63421505446918" lon="9.379837057499175"><ele>160.60000000000002</ele><time>2026-04-28T13:15:27.888Z</time></trkpt><trkpt lat="39.63423459318045" lon="9.37997565911417"><ele>159.8</ele><time>2026-04-28T13:15:29.888Z</time></trkpt><trkpt lat="39.63423269467029" lon="9.380081175758024"><ele>159.0</ele><time>2026-04-28T13:15:31.888Z</time></trkpt><trkpt lat="39.634315992002" lon="9.38022026085154"><ele>159.0</ele><time>2026-04-28T13:15:33.888Z</time></trkpt><trkpt lat="39.634375448040664" lon="9.380314338647743"><ele>159.0</ele><time>2026-04-28T13:15:34.888Z</time></trkpt><trkpt lat="39.634426875972515" lon="9.380410765149877"><ele>159.0</ele><time>2026-04-28T13:15:35.888Z</time></trkpt><trkpt lat="39.6344752327873" lon="9.380492376164426"><ele>159.0</ele><time>2026-04-28T13:15:36.888Z</time></trkpt><trkpt lat="39.63451628617028" lon="9.38056745771261"><ele>159.0</ele><time>2026-04-28T13:15:37.888Z</time></trkpt><trkpt lat="39.63456501106284" lon="9.380643300091418"><ele>159.0</ele><time>2026-04-28T13:15:38.888Z</time></trkpt><trkpt lat="39.6346045891366" lon="9.380716799461194"><ele>159.33333333333334</ele><time>2026-04-28T13:15:39.888Z</time></trkpt><trkpt lat="39.634664681671644" lon="9.380822146993227"><ele>159.66666666666666</ele><time>2026-04-28T13:15:41.888Z</time></trkpt><trkpt lat="39.634673159517064" lon="9.380923916511147"><ele>160.0</ele><time>2026-04-28T13:15:43.888Z</time></trkpt><trkpt lat="39.63467420275645" lon="9.381016616193238"><ele>160.33333333333331</ele><time>2026-04-28T13:15:46.888Z</time></trkpt><trkpt lat="39.63460077856517" lon="9.381076175578254"><ele>160.66666666666666</ele><time>2026-04-28T13:15:49.888Z</time></trkpt><trkpt lat="39.63450456599501" lon="9.381084364564511"><ele>161.0</ele><time>2026-04-28T13:15:51.888Z</time></trkpt><trkpt lat="39.63444428609573" lon="9.381056157226412"><ele>161.0</ele><time>2026-04-28T13:15:52.888Z</time></trkpt><trkpt lat="39.63438238936913" lon="9.381031344549273"><ele>161.0</ele><time>2026-04-28T13:15:53.888Z</time></trkpt><trkpt lat="39.63431795137907" lon="9.381011774675054"><ele>161.0</ele><time>2026-04-28T13:15:54.888Z</time></trkpt><trkpt lat="39.634248031082706" lon="9.381015566590952"><ele>161.0</ele><time>2026-04-28T13:15:56.888Z</time></trkpt><trkpt lat="39.63434208542278" lon="9.38136049899266"><ele>161.16666666666666</ele><time>2026-04-28T13:16:03.888Z</time></trkpt><trkpt lat="39.63441882701646" lon="9.38146201335587"><ele>161.33333333333331</ele><time>2026-04-28T13:16:04.888Z</time></trkpt><trkpt lat="39.63448870998803" lon="9.381512152430565"><ele>161.5</ele><time>2026-04-28T13:16:05.888Z</time></trkpt><trkpt lat="39.63454819952853" lon="9.381571149901111"><ele>161.66666666666666</ele><time>2026-04-28T13:16:06.888Z</time></trkpt><trkpt lat="39.63459762986694" lon="9.381635755076893"><ele>161.83333333333334</ele><time>2026-04-28T13:16:07.888Z</time></trkpt><trkpt lat="39.6346291418676" lon="9.381712676351524"><ele>162.0</ele><time>2026-04-28T13:16:08.888Z</time></trkpt><trkpt lat="39.63461111399577" lon="9.381808138001222"><ele>162.0</ele><time>2026-04-28T13:16:09.888Z</time></trkpt><trkpt lat="39.6346240481774" lon="9.381909956022309"><ele>162.0</ele><time>2026-04-28T13:16:10.888Z</time></trkpt><trkpt lat="39.634639745166325" lon="9.38201742731312"><ele>162.0</ele><time>2026-04-28T13:16:11.888Z</time></trkpt><trkpt lat="39.63465655765974" lon="9.382133546701686"><ele>162.0</ele><time>2026-04-28T13:16:12.888Z</time></trkpt><trkpt lat="39.63468019399138" lon="9.382246082168269"><ele>162.0</ele><time>2026-04-28T13:16:13.888Z</time></trkpt><trkpt lat="39.634702187678336" lon="9.382350797327996"><ele>162.0</ele><time>2026-04-28T13:16:14.888Z</time></trkpt><trkpt lat="39.63471930534296" lon="9.382453926776495"><ele>163.42857142857144</ele><time>2026-04-28T13:16:15.888Z</time></trkpt><trkpt lat="39.63473285602477" lon="9.382545704665098"><ele>164.85714285714286</ele><time>2026-04-28T13:16:16.888Z</time></trkpt><trkpt lat="39.63473557315137" lon="9.382630252566528"><ele>166.28571428571428</ele><time>2026-04-28T13:16:17.888Z</time></trkpt><trkpt lat="39.63474746792661" lon="9.382728719805531"><ele>167.71428571428572</ele><time>2026-04-28T13:16:18.888Z</time></trkpt><trkpt lat="39.63476299690045" lon="9.382816709614593"><ele>169.14285714285714</ele><time>2026-04-28T13:16:19.888Z</time></trkpt><trkpt lat="39.634780660872885" lon="9.382908979340481"><ele>170.57142857142858</ele><time>2026-04-28T13:16:20.888Z</time></trkpt><trkpt lat="39.634801132591654" lon="9.38300207609586"><ele>172.0</ele><time>2026-04-28T13:16:21.888Z</time></trkpt><trkpt lat="39.63482095163307" lon="9.38308571271468"><ele>174.83333333333334</ele><time>2026-04-28T13:16:22.888Z</time></trkpt><trkpt lat="39.63484158309993" lon="9.383163050624498"><ele>177.66666666666669</ele><time>2026-04-28T13:16:23.886Z</time></trkpt><trkpt lat="39.63486341882617" lon="9.383240579358421"><ele>180.5</ele><time>2026-04-28T13:16:24.887Z</time></trkpt><trkpt lat="39.63489928398481" lon="9.38330870069595"><ele>183.33333333333334</ele><time>2026-04-28T13:16:25.887Z</time></trkpt><trkpt lat="39.634927736162325" lon="9.383448962098695"><ele>186.16666666666666</ele><time>2026-04-28T13:16:27.886Z</time></trkpt><trkpt lat="39.63494567197032" lon="9.383593711149135"><ele>189.0</ele><time>2026-04-28T13:16:29.886Z</time></trkpt><trkpt lat="39.634978938167556" lon="9.383736753721372"><ele>193.2</ele><time>2026-04-28T13:16:31.886Z</time></trkpt><trkpt lat="39.63500649521039" lon="9.383866131486831"><ele>197.39999999999998</ele><time>2026-04-28T13:16:33.886Z</time></trkpt><trkpt lat="39.635032864918465" lon="9.384003026165427"><ele>201.6</ele><time>2026-04-28T13:16:35.887Z</time></trkpt><trkpt lat="39.63504350463145" lon="9.384100921997515"><ele>205.8</ele><time>2026-04-28T13:16:37.886Z</time></trkpt><trkpt lat="39.635034900082424" lon="9.384220676459888"><ele>210.0</ele><time>2026-04-28T13:16:39.886Z</time></trkpt><trkpt lat="39.63503823088898" lon="9.384316285357073"><ele>210.0</ele><time>2026-04-28T13:16:40.886Z</time></trkpt><trkpt lat="39.63503671285358" lon="9.384404743739381"><ele>210.0</ele><time>2026-04-28T13:16:41.886Z</time></trkpt><trkpt lat="39.635043016903374" lon="9.38450327096971"><ele>210.0</ele><time>2026-04-28T13:16:42.886Z</time></trkpt><trkpt lat="39.63502727019407" lon="9.384604911163315"><ele>210.0</ele><time>2026-04-28T13:16:43.886Z</time></trkpt><trkpt lat="39.6349928982713" lon="9.384736212887296"><ele>210.0</ele><time>2026-04-28T13:16:45.886Z</time></trkpt><trkpt lat="39.634950919797475" lon="9.384835317546429"><ele>210.0</ele><time>2026-04-28T13:16:47.886Z</time></trkpt><trkpt lat="39.634926459383976" lon="9.384977899371608"><ele>212.5</ele><time>2026-04-28T13:16:49.886Z</time></trkpt><trkpt lat="39.634903088702956" lon="9.385154570021212"><ele>215.0</ele><time>2026-04-28T13:16:51.886Z</time></trkpt><trkpt lat="39.63488987765585" lon="9.385293890754888"><ele>217.5</ele><time>2026-04-28T13:16:52.886Z</time></trkpt><trkpt lat="39.634836542998045" lon="9.385390794110139"><ele>220.0</ele><time>2026-04-28T13:16:53.886Z</time></trkpt><trkpt lat="39.63477121303792" lon="9.385551735421348"><ele>220.8</ele><time>2026-04-28T13:16:54.886Z</time></trkpt><trkpt lat="39.63471452437071" lon="9.385657394099985"><ele>221.6</ele><time>2026-04-28T13:16:55.886Z</time></trkpt><trkpt lat="39.63465103434775" lon="9.38576559679051"><ele>222.39999999999998</ele><time>2026-04-28T13:16:56.886Z</time></trkpt><trkpt lat="39.634586449903516" lon="9.385858309045314"><ele>223.2</ele><time>2026-04-28T13:16:57.886Z</time></trkpt><trkpt lat="39.63452906628111" lon="9.385933544249664"><ele>224.0</ele><time>2026-04-28T13:16:58.886Z</time></trkpt><trkpt lat="39.63447060697362" lon="9.385979736293267"><ele>227.71428571428572</ele><time>2026-04-28T13:16:59.886Z</time></trkpt><trkpt lat="39.63442463202973" lon="9.386065322337101"><ele>231.42857142857144</ele><time>2026-04-28T13:17:00.886Z</time></trkpt><trkpt lat="39.63437419624545" lon="9.386133316532426"><ele>235.14285714285714</ele><time>2026-04-28T13:17:01.886Z</time></trkpt><trkpt lat="39.63432651623008" lon="9.38619079208541"><ele>238.85714285714286</ele><time>2026-04-28T13:17:02.886Z</time></trkpt><trkpt lat="39.634273577259165" lon="9.386252428698112"><ele>242.57142857142858</ele><time>2026-04-28T13:17:03.886Z</time></trkpt><trkpt lat="39.63421500016902" lon="9.386315170281039"><ele>246.28571428571428</ele><time>2026-04-28T13:17:04.886Z</time></trkpt><trkpt lat="39.63416443079044" lon="9.386396121991861"><ele>250.0</ele><time>2026-04-28T13:17:05.886Z</time></trkpt><trkpt lat="39.634113576335665" lon="9.386512680837079"><ele>250.0</ele><time>2026-04-28T13:17:06.886Z</time></trkpt><trkpt lat="39.63410070781931" lon="9.386647297862204"><ele>250.0</ele><time>2026-04-28T13:17:07.886Z</time></trkpt><trkpt lat="39.634094411069775" lon="9.386775087679448"><ele>250.0</ele><time>2026-04-28T13:17:08.886Z</time></trkpt><trkpt lat="39.63406756264908" lon="9.386936547749606"><ele>250.0</ele><time>2026-04-28T13:17:09.886Z</time></trkpt><trkpt lat="39.63403355237638" lon="9.387100816665718"><ele>249.99999999999997</ele><time>2026-04-28T13:17:10.886Z</time></trkpt><trkpt lat="39.63407057409576" lon="9.386978154379564"><ele>250.0</ele><time>2026-04-28T13:17:11.886Z</time></trkpt><trkpt lat="39.63404951938936" lon="9.387088424973493"><ele>250.0</ele><time>2026-04-28T13:17:12.886Z</time></trkpt><trkpt lat="39.634025281229064" lon="9.387190615563773"><ele>250.0</ele><time>2026-04-28T13:17:13.886Z</time></trkpt><trkpt lat="39.63400108886619" lon="9.387279361101696"><ele>249.99999999999997</ele><time>2026-04-28T13:17:14.886Z</time></trkpt><trkpt lat="39.63397012653273" lon="9.387362576841696"><ele>250.0</ele><time>2026-04-28T13:17:15.886Z</time></trkpt><trkpt lat="39.633926311440504" lon="9.387446862772784"><ele>251.83333333333331</ele><time>2026-04-28T13:17:16.886Z</time></trkpt><trkpt lat="39.63385386373393" lon="9.387504108088818"><ele>253.66666666666666</ele><time>2026-04-28T13:17:17.886Z</time></trkpt><trkpt lat="39.63379476605393" lon="9.387581925402237"><ele>255.5</ele><time>2026-04-28T13:17:18.886Z</time></trkpt><trkpt lat="39.63374227615726" lon="9.387670922425828"><ele>257.3333333333333</ele><time>2026-04-28T13:17:19.886Z</time></trkpt><trkpt lat="39.63371990793325" lon="9.387782391430239"><ele>259.1666666666667</ele><time>2026-04-28T13:17:20.886Z</time></trkpt><trkpt lat="39.633695163036926" lon="9.387894659407303"><ele>261.0</ele><time>2026-04-28T13:17:21.886Z</time></trkpt><trkpt lat="39.63367713809698" lon="9.388001699077758"><ele>263.5</ele><time>2026-04-28T13:17:22.886Z</time></trkpt><trkpt lat="39.63367365927295" lon="9.38811426908185"><ele>266.0</ele><time>2026-04-28T13:17:23.886Z</time></trkpt><trkpt lat="39.63366573371475" lon="9.388232871676857"><ele>268.5</ele><time>2026-04-28T13:17:24.887Z</time></trkpt><trkpt lat="39.63366210747183" lon="9.388353689339564"><ele>271.0</ele><time>2026-04-28T13:17:25.887Z</time></trkpt><trkpt lat="39.63366211533536" lon="9.388474111567547"><ele>273.5</ele><time>2026-04-28T13:17:26.887Z</time></trkpt><trkpt lat="39.63363410989635" lon="9.38857851036134"><ele>276.0</ele><time>2026-04-28T13:17:27.887Z</time></trkpt><trkpt lat="39.633602626190495" lon="9.388665050097357"><ele>276.6666666666667</ele><time>2026-04-28T13:17:28.887Z</time></trkpt><trkpt lat="39.633562471712025" lon="9.388750855430715"><ele>277.3333333333333</ele><time>2026-04-28T13:17:29.887Z</time></trkpt><trkpt lat="39.63350751953235" lon="9.388838798132943"><ele>278.0</ele><time>2026-04-28T13:17:30.887Z</time></trkpt><trkpt lat="39.6334445226679" lon="9.388934609904059"><ele>278.66666666666663</ele><time>2026-04-28T13:17:31.887Z</time></trkpt><trkpt lat="39.63337777991515" lon="9.38902630700058"><ele>279.3333333333333</ele><time>2026-04-28T13:17:32.887Z</time></trkpt><trkpt lat="39.63331824524805" lon="9.389112821668462"><ele>280.0</ele><time>2026-04-28T13:17:33.887Z</time></trkpt><trkpt lat="39.63324945035101" lon="9.38917313615472"><ele>280.0</ele><time>2026-04-28T13:17:34.887Z</time></trkpt><trkpt lat="39.63317071474132" lon="9.38923656925379"><ele>280.0</ele><time>2026-04-28T13:17:35.887Z</time></trkpt><trkpt lat="39.63310747685192" lon="9.389310270360285"><ele>280.0</ele><time>2026-04-28T13:17:36.887Z</time></trkpt><trkpt lat="39.63304407052528" lon="9.389362721530466"><ele>280.0</ele><time>2026-04-28T13:17:37.887Z</time></trkpt><trkpt lat="39.63297213625447" lon="9.389432430040781"><ele>280.0</ele><time>2026-04-28T13:17:38.887Z</time></trkpt><trkpt lat="39.63289113316522" lon="9.389500638458486"><ele>280.0</ele><time>2026-04-28T13:17:39.887Z</time></trkpt><trkpt lat="39.63281565573477" lon="9.389579400905125"><ele>283.16666666666663</ele><time>2026-04-28T13:17:40.887Z</time></trkpt><trkpt lat="39.632731234345655" lon="9.38965943782667"><ele>286.3333333333333</ele><time>2026-04-28T13:17:41.887Z</time></trkpt><trkpt lat="39.63265588102106" lon="9.38972716305207"><ele>289.5</ele><time>2026-04-28T13:17:42.887Z</time></trkpt><trkpt lat="39.63258993683751" lon="9.389763626359764"><ele>292.6666666666667</ele><time>2026-04-28T13:17:43.887Z</time></trkpt><trkpt lat="39.63253853367629" lon="9.389867985763539"><ele>295.83333333333337</ele><time>2026-04-28T13:17:45.887Z</time></trkpt><trkpt lat="39.63255815167043" lon="9.38994638296776"><ele>299.0</ele><time>2026-04-28T13:17:46.887Z</time></trkpt><trkpt lat="39.63260473106414" lon="9.39001146189304"><ele>299.0</ele><time>2026-04-28T13:17:47.887Z</time></trkpt><trkpt lat="39.632696135513335" lon="9.39001710950922"><ele>299.0</ele><time>2026-04-28T13:17:48.887Z</time></trkpt><trkpt lat="39.6327761969803" lon="9.390041417698257"><ele>299.0</ele><time>2026-04-28T13:17:49.887Z</time></trkpt><trkpt lat="39.632853922386104" lon="9.390085408881756"><ele>299.0</ele><time>2026-04-28T13:17:50.887Z</time></trkpt><trkpt lat="39.63293591065968" lon="9.39013824085416"><ele>299.0</ele><time>2026-04-28T13:17:51.887Z</time></trkpt><trkpt lat="39.633018081613876" lon="9.390190709841779"><ele>299.0</ele><time>2026-04-28T13:17:52.887Z</time></trkpt><trkpt lat="39.633084745830686" lon="9.390262292372126"><ele>298.0</ele><time>2026-04-28T13:17:53.887Z</time></trkpt><trkpt lat="39.63315696761488" lon="9.39033680250271"><ele>297.0</ele><time>2026-04-28T13:17:54.887Z</time></trkpt><trkpt lat="39.63323818220823" lon="9.390374832578479"><ele>296.0</ele><time>2026-04-28T13:17:55.887Z</time></trkpt><trkpt lat="39.633373124727505" lon="9.390376743673308"><ele>295.0</ele><time>2026-04-28T13:17:57.887Z</time></trkpt><trkpt lat="39.63345359477744" lon="9.390354495541255"><ele>294.0</ele><time>2026-04-28T13:17:58.887Z</time></trkpt><trkpt lat="39.63353293556717" lon="9.390400894485563"><ele>296.3333333333333</ele><time>2026-04-28T13:18:00.887Z</time></trkpt><trkpt lat="39.63352676051613" lon="9.390508662035703"><ele>298.6666666666667</ele><time>2026-04-28T13:18:02.887Z</time></trkpt><trkpt lat="39.63347861130582" lon="9.390567855880532"><ele>301.0</ele><time>2026-04-28T13:18:03.887Z</time></trkpt><trkpt lat="39.63346263864023" lon="9.390657893338677"><ele>303.33333333333337</ele><time>2026-04-28T13:18:04.887Z</time></trkpt><trkpt lat="39.633430112014906" lon="9.390754493015487"><ele>305.6666666666667</ele><time>2026-04-28T13:18:05.887Z</time></trkpt><trkpt lat="39.63338020783601" lon="9.390847266665965"><ele>308.0</ele><time>2026-04-28T13:18:06.887Z</time></trkpt><trkpt lat="39.63333898275428" lon="9.390952024012678"><ele>308.0</ele><time>2026-04-28T13:18:07.887Z</time></trkpt><trkpt lat="39.633293570508734" lon="9.391039763891"><ele>308.0</ele><time>2026-04-28T13:18:08.887Z</time></trkpt><trkpt lat="39.63322509037148" lon="9.39111410306887"><ele>308.0</ele><time>2026-04-28T13:18:09.887Z</time></trkpt><trkpt lat="39.63314089685194" lon="9.39118995913892"><ele>308.0</ele><time>2026-04-28T13:18:10.887Z</time></trkpt><trkpt lat="39.63306437993319" lon="9.39128756788442"><ele>308.0</ele><time>2026-04-28T13:18:11.887Z</time></trkpt><trkpt lat="39.63298937953434" lon="9.391373932957212"><ele>308.6</ele><time>2026-04-28T13:18:12.887Z</time></trkpt><trkpt lat="39.63291036362047" lon="9.39145236587102"><ele>309.20000000000005</ele><time>2026-04-28T13:18:13.887Z</time></trkpt><trkpt lat="39.632870890364885" lon="9.391571053615634"><ele>309.8</ele><time>2026-04-28T13:18:14.887Z</time></trkpt><trkpt lat="39.63283424072447" lon="9.391676949400487"><ele>310.40000000000003</ele><time>2026-04-28T13:18:15.887Z</time></trkpt><trkpt lat="39.63280648854383" lon="9.391777274961816"><ele>311.0</ele><time>2026-04-28T13:18:16.887Z</time></trkpt><trkpt lat="39.63276902263287" lon="9.391871475439089"><ele>315.6</ele><time>2026-04-28T13:18:17.887Z</time></trkpt><trkpt lat="39.63270385938398" lon="9.39193470111832"><ele>320.20000000000005</ele><time>2026-04-28T13:18:18.887Z</time></trkpt><trkpt lat="39.63264135557312" lon="9.39201744477047"><ele>324.79999999999995</ele><time>2026-04-28T13:18:19.887Z</time></trkpt><trkpt lat="39.632571548470224" lon="9.392111926850548"><ele>329.4</ele><time>2026-04-28T13:18:20.887Z</time></trkpt><trkpt lat="39.63251395760442" lon="9.392224224534667"><ele>334.0</ele><time>2026-04-28T13:18:21.887Z</time></trkpt><trkpt lat="39.63243322170433" lon="9.392311082246769"><ele>335.2</ele><time>2026-04-28T13:18:22.887Z</time></trkpt><trkpt lat="39.6323727706185" lon="9.392411701676693"><ele>336.4</ele><time>2026-04-28T13:18:23.887Z</time></trkpt><trkpt lat="39.632344482751826" lon="9.392520207438784"><ele>337.6</ele><time>2026-04-28T13:18:24.887Z</time></trkpt><trkpt lat="39.632307841977" lon="9.39262156731688"><ele>338.8</ele><time>2026-04-28T13:18:25.887Z</time></trkpt><trkpt lat="39.632281957463505" lon="9.392736754650327"><ele>340.0</ele><time>2026-04-28T13:18:26.887Z</time></trkpt><trkpt lat="39.63226852869599" lon="9.392868089674787"><ele>340.0</ele><time>2026-04-28T13:18:27.887Z</time></trkpt><trkpt lat="39.63225760231433" lon="9.39299796979268"><ele>340.0</ele><time>2026-04-28T13:18:28.887Z</time></trkpt><trkpt lat="39.632251871756054" lon="9.39311252612799"><ele>340.0</ele><time>2026-04-28T13:18:29.884Z</time></trkpt><trkpt lat="39.632259202859444" lon="9.393215196548175"><ele>340.0</ele><time>2026-04-28T13:18:30.885Z</time></trkpt><trkpt lat="39.63228370748113" lon="9.393303947861822"><ele>340.0</ele><time>2026-04-28T13:18:31.885Z</time></trkpt><trkpt lat="39.632319740856616" lon="9.393395869097008"><ele>340.0</ele><time>2026-04-28T13:18:32.885Z</time></trkpt><trkpt lat="39.63237870667114" lon="9.393470006615447"><ele>341.2</ele><time>2026-04-28T13:18:33.884Z</time></trkpt><trkpt lat="39.632433404363965" lon="9.39355381277249"><ele>342.4</ele><time>2026-04-28T13:18:34.884Z</time></trkpt><trkpt lat="39.63244068291312" lon="9.393688204156993"><ele>343.6</ele><time>2026-04-28T13:18:36.885Z</time></trkpt><trkpt lat="39.63238977465267" lon="9.393845550814614"><ele>344.8</ele><time>2026-04-28T13:18:38.885Z</time></trkpt><trkpt lat="39.63235514951531" lon="9.393962824450924"><ele>346.0</ele><time>2026-04-28T13:18:39.884Z</time></trkpt><trkpt lat="39.63231542782376" lon="9.394061553096307"><ele>346.0</ele><time>2026-04-28T13:18:40.884Z</time></trkpt><trkpt lat="39.632283314858114" lon="9.3941734567885"><ele>346.0</ele><time>2026-04-28T13:18:41.884Z</time></trkpt><trkpt lat="39.63226041768692" lon="9.394282607337644"><ele>346.0</ele><time>2026-04-28T13:18:42.884Z</time></trkpt><trkpt lat="39.632233257104765" lon="9.394398639685178"><ele>346.0</ele><time>2026-04-28T13:18:43.884Z</time></trkpt><trkpt lat="39.63220658752633" lon="9.394509935462612"><ele>346.0</ele><time>2026-04-28T13:18:44.884Z</time></trkpt><trkpt lat="39.632179910988974" lon="9.394602632445151"><ele>346.0</ele><time>2026-04-28T13:18:45.884Z</time></trkpt><trkpt lat="39.6321591098653" lon="9.394679881535271"><ele>346.5</ele><time>2026-04-28T13:18:46.884Z</time></trkpt><trkpt lat="39.63214802862051" lon="9.394764812240048"><ele>347.0</ele><time>2026-04-28T13:18:47.884Z</time></trkpt><trkpt lat="39.632149952363065" lon="9.394849793217674"><ele>347.5</ele><time>2026-04-28T13:18:48.884Z</time></trkpt><trkpt lat="39.632160949390034" lon="9.394955136469035"><ele>348.0</ele><time>2026-04-28T13:18:49.884Z</time></trkpt><trkpt lat="39.63217615882336" lon="9.395064024058954"><ele>348.5</ele><time>2026-04-28T13:18:50.884Z</time></trkpt><trkpt lat="39.632195076956506" lon="9.395163967705061"><ele>349.0</ele><time>2026-04-28T13:18:51.884Z</time></trkpt><trkpt lat="39.63221615749288" lon="9.395282761621267"><ele>349.0</ele><time>2026-04-28T13:18:52.884Z</time></trkpt><trkpt lat="39.63224683888489" lon="9.395382984272125"><ele>349.0</ele><time>2026-04-28T13:18:53.884Z</time></trkpt><trkpt lat="39.632287662678856" lon="9.395453595896047"><ele>349.0</ele><time>2026-04-28T13:18:54.884Z</time></trkpt><trkpt lat="39.63235030875764" lon="9.395523784115497"><ele>349.0</ele><time>2026-04-28T13:18:55.884Z</time></trkpt><trkpt lat="39.63241690937291" lon="9.395578552019604"><ele>349.0</ele><time>2026-04-28T13:18:56.884Z</time></trkpt><trkpt lat="39.63247757817447" lon="9.395604047952409"><ele>349.0</ele><time>2026-04-28T13:18:57.884Z</time></trkpt><trkpt lat="39.63255402965957" lon="9.39561985646902"><ele>350.8333333333333</ele><time>2026-04-28T13:18:58.884Z</time></trkpt><trkpt lat="39.63263754542579" lon="9.39562417926069"><ele>352.66666666666663</ele><time>2026-04-28T13:18:59.884Z</time></trkpt><trkpt lat="39.63273104571995" lon="9.395639935585475"><ele>354.5</ele><time>2026-04-28T13:19:00.884Z</time></trkpt><trkpt lat="39.6328084978529" lon="9.395637847891003"><ele>356.3333333333333</ele><time>2026-04-28T13:19:01.884Z</time></trkpt><trkpt lat="39.63287221846852" lon="9.395620934138663"><ele>358.1666666666667</ele><time>2026-04-28T13:19:02.884Z</time></trkpt><trkpt lat="39.63294299288231" lon="9.395593486418097"><ele>360.0</ele><time>2026-04-28T13:19:03.884Z</time></trkpt><trkpt lat="39.63301855193922" lon="9.39556141988257"><ele>359.6666666666667</ele><time>2026-04-28T13:19:04.884Z</time></trkpt><trkpt lat="39.633095421220354" lon="9.395521781119102"><ele>359.3333333333333</ele><time>2026-04-28T13:19:05.884Z</time></trkpt><trkpt lat="39.63316479396611" lon="9.39547300971195"><ele>359.0</ele><time>2026-04-28T13:19:06.884Z</time></trkpt><trkpt lat="39.633229716712414" lon="9.395432133116577"><ele>358.66666666666663</ele><time>2026-04-28T13:19:07.884Z</time></trkpt><trkpt lat="39.633343091421544" lon="9.395388081083116"><ele>358.3333333333333</ele><time>2026-04-28T13:19:09.884Z</time></trkpt><trkpt lat="39.633406024384385" lon="9.395402060937878"><ele>358.0</ele><time>2026-04-28T13:19:10.884Z</time></trkpt><trkpt lat="39.63352097944996" lon="9.395473475071938"><ele>361.0</ele><time>2026-04-28T13:19:12.884Z</time></trkpt><trkpt lat="39.63357827232395" lon="9.395585676087773"><ele>364.0</ele><time>2026-04-28T13:19:14.884Z</time></trkpt><trkpt lat="39.63355067482478" lon="9.39574881244031"><ele>367.0</ele><time>2026-04-28T13:19:16.884Z</time></trkpt><trkpt lat="39.633509765512905" lon="9.395832138483618"><ele>370.0</ele><time>2026-04-28T13:19:17.884Z</time></trkpt><trkpt lat="39.63345607084923" lon="9.395925190653893"><ele>373.0</ele><time>2026-04-28T13:19:18.884Z</time></trkpt><trkpt lat="39.63340347159617" lon="9.396032209841815"><ele>373.0</ele><time>2026-04-28T13:19:19.884Z</time></trkpt><trkpt lat="39.633355574144765" lon="9.396138129924942"><ele>373.0</ele><time>2026-04-28T13:19:20.884Z</time></trkpt><trkpt lat="39.63330941785811" lon="9.39624762311703"><ele>373.0</ele><time>2026-04-28T13:19:21.884Z</time></trkpt><trkpt lat="39.63326583720686" lon="9.396353291038801"><ele>373.0</ele><time>2026-04-28T13:19:22.884Z</time></trkpt><trkpt lat="39.63323212504556" lon="9.396440616801133"><ele>373.0</ele><time>2026-04-28T13:19:23.884Z</time></trkpt><trkpt lat="39.63322088263618" lon="9.396524545086075"><ele>373.0</ele><time>2026-04-28T13:19:24.884Z</time></trkpt><trkpt lat="39.63322825548114" lon="9.39662083637918"><ele>374.8333333333333</ele><time>2026-04-28T13:19:25.884Z</time></trkpt><trkpt lat="39.63324522219217" lon="9.396718569002143"><ele>376.66666666666663</ele><time>2026-04-28T13:19:26.884Z</time></trkpt><trkpt lat="39.6332695924895" lon="9.396837165058104"><ele>378.5</ele><time>2026-04-28T13:19:27.884Z</time></trkpt><trkpt lat="39.6332897702854" lon="9.396951543123214"><ele>380.3333333333333</ele><time>2026-04-28T13:19:28.884Z</time></trkpt><trkpt lat="39.63331510490538" lon="9.397062751379453"><ele>382.1666666666667</ele><time>2026-04-28T13:19:29.884Z</time></trkpt><trkpt lat="39.633337379208" lon="9.397178340519039"><ele>384.0</ele><time>2026-04-28T13:19:30.884Z</time></trkpt><trkpt lat="39.63336787558823" lon="9.397292220005744"><ele>385.3333333333333</ele><time>2026-04-28T13:19:31.884Z</time></trkpt><trkpt lat="39.63339789640532" lon="9.397377995791281"><ele>386.66666666666663</ele><time>2026-04-28T13:19:32.884Z</time></trkpt><trkpt lat="39.6334352160631" lon="9.397461224040558"><ele>388.0</ele><time>2026-04-28T13:19:33.884Z</time></trkpt><trkpt lat="39.63346574594793" lon="9.39756555811318"><ele>389.3333333333333</ele><time>2026-04-28T13:19:34.884Z</time></trkpt><trkpt lat="39.63348805981087" lon="9.397662292375898"><ele>390.66666666666663</ele><time>2026-04-28T13:19:35.884Z</time></trkpt><trkpt lat="39.63348939227851" lon="9.397759985274213"><ele>392.0</ele><time>2026-04-28T13:19:36.884Z</time></trkpt><trkpt lat="39.63349748067484" lon="9.397851501669223"><ele>392.0</ele><time>2026-04-28T13:19:37.884Z</time></trkpt><trkpt lat="39.63349324189487" lon="9.397944475473347"><ele>392.0</ele><time>2026-04-28T13:19:38.885Z</time></trkpt><trkpt lat="39.633495034680884" lon="9.398044840093473"><ele>392.0</ele><time>2026-04-28T13:19:39.885Z</time></trkpt><trkpt lat="39.6334998823149" lon="9.398132430941333"><ele>392.0</ele><time>2026-04-28T13:19:40.885Z</time></trkpt><trkpt lat="39.63351663315062" lon="9.398218726215129"><ele>392.0</ele><time>2026-04-28T13:19:41.885Z</time></trkpt><trkpt lat="39.633536097860244" lon="9.398301510717017"><ele>392.0</ele><time>2026-04-28T13:19:42.885Z</time></trkpt><trkpt lat="39.633556517542" lon="9.398379886348994"><ele>392.0</ele><time>2026-04-28T13:19:43.885Z</time></trkpt><trkpt lat="39.6335929419323" lon="9.398510699488426"><ele>392.8333333333333</ele><time>2026-04-28T13:19:45.885Z</time></trkpt><trkpt lat="39.63364689112609" lon="9.398656793455396"><ele>393.66666666666663</ele><time>2026-04-28T13:19:47.885Z</time></trkpt><trkpt lat="39.63363820685001" lon="9.398796764715343"><ele>394.5</ele><time>2026-04-28T13:19:49.885Z</time></trkpt><trkpt lat="39.63361511186093" lon="9.398873809950674"><ele>395.33333333333337</ele><time>2026-04-28T13:19:50.885Z</time></trkpt><trkpt lat="39.633603270830456" lon="9.398963407686425"><ele>396.1666666666667</ele><time>2026-04-28T13:19:51.885Z</time></trkpt><trkpt lat="39.63360059772422" lon="9.399056846485761"><ele>397.0</ele><time>2026-04-28T13:19:52.885Z</time></trkpt><trkpt lat="39.633611209097715" lon="9.399160242695269"><ele>397.83333333333337</ele><time>2026-04-28T13:19:53.885Z</time></trkpt><trkpt lat="39.633616869022546" lon="9.399260404654534"><ele>398.6666666666667</ele><time>2026-04-28T13:19:54.885Z</time></trkpt><trkpt lat="39.633615902887975" lon="9.399364950656892"><ele>399.5</ele><time>2026-04-28T13:19:55.885Z</time></trkpt><trkpt lat="39.633614750003005" lon="9.399467025515765"><ele>400.33333333333337</ele><time>2026-04-28T13:19:56.885Z</time></trkpt><trkpt lat="39.633620225409246" lon="9.399580381040517"><ele>401.1666666666667</ele><time>2026-04-28T13:19:57.885Z</time></trkpt><trkpt lat="39.63363287355896" lon="9.399694363203311"><ele>402.0</ele><time>2026-04-28T13:19:58.885Z</time></trkpt><trkpt lat="39.63365516673473" lon="9.399804287833376"><ele>404.5</ele><time>2026-04-28T13:19:59.885Z</time></trkpt><trkpt lat="39.63368300788648" lon="9.39990040489094"><ele>407.0</ele><time>2026-04-28T13:20:00.885Z</time></trkpt><trkpt lat="39.633706536419396" lon="9.39999744295997"><ele>409.5</ele><time>2026-04-28T13:20:01.885Z</time></trkpt><trkpt lat="39.63373528992898" lon="9.400100666831092"><ele>412.0</ele><time>2026-04-28T13:20:02.885Z</time></trkpt><trkpt lat="39.63376041767891" lon="9.400197650455558"><ele>414.5</ele><time>2026-04-28T13:20:03.885Z</time></trkpt><trkpt lat="39.633794477151255" lon="9.40028389141696"><ele>417.0</ele><time>2026-04-28T13:20:04.885Z</time></trkpt><trkpt lat="39.63382166128668" lon="9.400371747747965"><ele>417.0</ele><time>2026-04-28T13:20:05.885Z</time></trkpt><trkpt lat="39.63383755298028" lon="9.400471266968244"><ele>417.0</ele><time>2026-04-28T13:20:06.885Z</time></trkpt><trkpt lat="39.63383994619433" lon="9.400554991531239"><ele>417.0</ele><time>2026-04-28T13:20:07.885Z</time></trkpt><trkpt lat="39.633804946716246" lon="9.400695777586684"><ele>417.0</ele><time>2026-04-28T13:20:09.885Z</time></trkpt><trkpt lat="39.63378125633276" lon="9.4007756364079"><ele>417.0</ele><time>2026-04-28T13:20:10.885Z</time></trkpt><trkpt lat="39.63376144617824" lon="9.400858466251185"><ele>417.0</ele><time>2026-04-28T13:20:11.885Z</time></trkpt><trkpt lat="39.633745061141035" lon="9.400948196068397"><ele>417.14285714285717</ele><time>2026-04-28T13:20:12.885Z</time></trkpt><trkpt lat="39.633722750066475" lon="9.40103571483464"><ele>417.2857142857143</ele><time>2026-04-28T13:20:13.885Z</time></trkpt><trkpt lat="39.63370285258116" lon="9.40112767212338"><ele>417.42857142857144</ele><time>2026-04-28T13:20:14.885Z</time></trkpt><trkpt lat="39.63368190039009" lon="9.401225215432012"><ele>417.57142857142856</ele><time>2026-04-28T13:20:15.885Z</time></trkpt><trkpt lat="39.633651137362406" lon="9.401316296518955"><ele>417.71428571428567</ele><time>2026-04-28T13:20:16.885Z</time></trkpt><trkpt lat="39.633613485228544" lon="9.401399758065178"><ele>417.85714285714283</ele><time>2026-04-28T13:20:17.885Z</time></trkpt><trkpt lat="39.63357505589827" lon="9.401470290588577"><ele>418.0</ele><time>2026-04-28T13:20:18.885Z</time></trkpt><trkpt lat="39.63353130998677" lon="9.401533035002668"><ele>419.0</ele><time>2026-04-28T13:20:19.885Z</time></trkpt><trkpt lat="39.633421444811766" lon="9.401618722506642"><ele>420.0</ele><time>2026-04-28T13:20:21.885Z</time></trkpt><trkpt lat="39.6332946752604" lon="9.401691394851468"><ele>421.0</ele><time>2026-04-28T13:20:23.885Z</time></trkpt><trkpt lat="39.63322507628559" lon="9.401709127869333"><ele>422.0</ele><time>2026-04-28T13:20:24.885Z</time></trkpt><trkpt lat="39.633146596123" lon="9.401721901119425"><ele>423.0</ele><time>2026-04-28T13:20:25.885Z</time></trkpt><trkpt lat="39.63306417230442" lon="9.401711393327009"><ele>423.0</ele><time>2026-04-28T13:20:26.885Z</time></trkpt><trkpt lat="39.63297003209523" lon="9.401708565740913"><ele>423.0</ele><time>2026-04-28T13:20:27.885Z</time></trkpt><trkpt lat="39.63287020860218" lon="9.40171146928835"><ele>423.0</ele><time>2026-04-28T13:20:28.885Z</time></trkpt><trkpt lat="39.63277564703862" lon="9.401711414315686"><ele>423.0</ele><time>2026-04-28T13:20:29.885Z</time></trkpt><trkpt lat="39.6326775862937" lon="9.401710264510166"><ele>423.0</ele><time>2026-04-28T13:20:30.885Z</time></trkpt><trkpt lat="39.632584655209754" lon="9.401716103248468"><ele>424.0</ele><time>2026-04-28T13:20:31.885Z</time></trkpt><trkpt lat="39.63250390991268" lon="9.401717668510843"><ele>425.0</ele><time>2026-04-28T13:20:32.885Z</time></trkpt><trkpt lat="39.63242499755606" lon="9.401722860706396"><ele>425.99999999999994</ele><time>2026-04-28T13:20:33.885Z</time></trkpt><trkpt lat="39.63232949332135" lon="9.401679204790529"><ele>427.0</ele><time>2026-04-28T13:20:35.883Z</time></trkpt><trkpt lat="39.63223431856402" lon="9.40164260631815"><ele>428.0</ele><time>2026-04-28T13:20:37.883Z</time></trkpt><trkpt lat="39.632127380909495" lon="9.401682488277297"><ele>428.0</ele><time>2026-04-28T13:20:39.883Z</time></trkpt><trkpt lat="39.632031400381116" lon="9.40180551049225"><ele>427.99999999999994</ele><time>2026-04-28T13:20:41.883Z</time></trkpt><trkpt lat="39.63199258358806" lon="9.401938724776022"><ele>427.99999999999994</ele><time>2026-04-28T13:20:43.883Z</time></trkpt><trkpt lat="39.63188330158407" lon="9.401993778543028"><ele>428.0</ele><time>2026-04-28T13:20:45.883Z</time></trkpt><trkpt lat="39.6318051387204" lon="9.402033999501986"><ele>428.0</ele><time>2026-04-28T13:20:46.883Z</time></trkpt><trkpt lat="39.63173020547865" lon="9.402068785485785"><ele>426.8571428571429</ele><time>2026-04-28T13:20:47.882Z</time></trkpt><trkpt lat="39.63166476626949" lon="9.402103110928309"><ele>425.7142857142857</ele><time>2026-04-28T13:20:48.883Z</time></trkpt><trkpt lat="39.63160063411918" lon="9.402118522110456"><ele>424.57142857142856</ele><time>2026-04-28T13:20:49.883Z</time></trkpt><trkpt lat="39.631534624269456" lon="9.40214588477884"><ele>423.42857142857144</ele><time>2026-04-28T13:20:50.883Z</time></trkpt><trkpt lat="39.63147689004649" lon="9.402192594757325"><ele>422.2857142857143</ele><time>2026-04-28T13:20:51.883Z</time></trkpt><trkpt lat="39.63141905638776" lon="9.402242426075954"><ele>421.14285714285717</ele><time>2026-04-28T13:20:52.883Z</time></trkpt><trkpt lat="39.63136211369517" lon="9.402306049699195"><ele>420.0</ele><time>2026-04-28T13:20:53.883Z</time></trkpt><trkpt lat="39.63128611241486" lon="9.402363076047084"><ele>420.0</ele><time>2026-04-28T13:20:54.883Z</time></trkpt><trkpt lat="39.63121011451959" lon="9.402414220743637"><ele>420.0</ele><time>2026-04-28T13:20:55.883Z</time></trkpt><trkpt lat="39.63114479952603" lon="9.402468291247036"><ele>420.0</ele><time>2026-04-28T13:20:56.883Z</time></trkpt><trkpt lat="39.631076095996946" lon="9.402529975455703"><ele>420.0</ele><time>2026-04-28T13:20:57.883Z</time></trkpt><trkpt lat="39.63101039649632" lon="9.402594581543717"><ele>420.0</ele><time>2026-04-28T13:20:58.883Z</time></trkpt><trkpt lat="39.63093047118851" lon="9.402642834818106"><ele>420.0</ele><time>2026-04-28T13:20:59.883Z</time></trkpt><trkpt lat="39.63085036365624" lon="9.402684088920159"><ele>420.6666666666667</ele><time>2026-04-28T13:21:00.883Z</time></trkpt><trkpt lat="39.63077277105848" lon="9.402717949074166"><ele>421.33333333333337</ele><time>2026-04-28T13:21:01.883Z</time></trkpt><trkpt lat="39.630689461088615" lon="9.402761707554015"><ele>422.0</ele><time>2026-04-28T13:21:02.883Z</time></trkpt><trkpt lat="39.630625849155734" lon="9.402805863579378"><ele>422.6666666666667</ele><time>2026-04-28T13:21:03.883Z</time></trkpt><trkpt lat="39.630561009223804" lon="9.402859782307925"><ele>423.33333333333337</ele><time>2026-04-28T13:21:04.883Z</time></trkpt><trkpt lat="39.63048534371306" lon="9.402932741685882"><ele>424.0</ele><time>2026-04-28T13:21:05.883Z</time></trkpt><trkpt lat="39.63041005130633" lon="9.403011386352281"><ele>423.6666666666667</ele><time>2026-04-28T13:21:06.883Z</time></trkpt><trkpt lat="39.6303701852888" lon="9.403081362469932"><ele>423.33333333333337</ele><time>2026-04-28T13:21:07.883Z</time></trkpt><trkpt lat="39.63031750277576" lon="9.40315353766088"><ele>423.0</ele><time>2026-04-28T13:21:08.883Z</time></trkpt><trkpt lat="39.63026301738864" lon="9.403224273817628"><ele>422.66666666666663</ele><time>2026-04-28T13:21:09.883Z</time></trkpt><trkpt lat="39.63020057431019" lon="9.40326570131497"><ele>422.3333333333333</ele><time>2026-04-28T13:21:10.883Z</time></trkpt><trkpt lat="39.63012243333799" lon="9.403304784396848"><ele>422.0</ele><time>2026-04-28T13:21:11.883Z</time></trkpt><trkpt lat="39.63004352731206" lon="9.403325225112058"><ele>422.0</ele><time>2026-04-28T13:21:12.883Z</time></trkpt><trkpt lat="39.6299709803933" lon="9.403337307729084"><ele>422.0</ele><time>2026-04-28T13:21:13.883Z</time></trkpt><trkpt lat="39.629906664029704" lon="9.403349243538404"><ele>422.0</ele><time>2026-04-28T13:21:14.883Z</time></trkpt><trkpt lat="39.629840000913376" lon="9.403381609699604"><ele>422.0</ele><time>2026-04-28T13:21:15.884Z</time></trkpt><trkpt lat="39.62977251187078" lon="9.403433119603074"><ele>422.0</ele><time>2026-04-28T13:21:16.884Z</time></trkpt><trkpt lat="39.62972330451679" lon="9.403493486780025"><ele>422.0</ele><time>2026-04-28T13:21:17.884Z</time></trkpt><trkpt lat="39.62965557266005" lon="9.403566474973236"><ele>422.0</ele><time>2026-04-28T13:21:18.884Z</time></trkpt><trkpt lat="39.62959083856093" lon="9.403629347309494"><ele>422.0</ele><time>2026-04-28T13:21:19.884Z</time></trkpt><trkpt lat="39.62953200368606" lon="9.40367818154185"><ele>422.0</ele><time>2026-04-28T13:21:20.884Z</time></trkpt><trkpt lat="39.62944833892048" lon="9.403748727381629"><ele>422.0</ele><time>2026-04-28T13:21:22.884Z</time></trkpt><trkpt lat="39.62936808725678" lon="9.403834402198513"><ele>422.0</ele><time>2026-04-28T13:21:24.884Z</time></trkpt><trkpt lat="39.62929895832801" lon="9.40393288283028"><ele>422.0</ele><time>2026-04-28T13:21:26.884Z</time></trkpt><trkpt lat="39.62922083564387" lon="9.403999439008025"><ele>420.8333333333333</ele><time>2026-04-28T13:21:28.884Z</time></trkpt><trkpt lat="39.6291769575792" lon="9.40412525319108"><ele>419.66666666666663</ele><time>2026-04-28T13:21:30.884Z</time></trkpt><trkpt lat="39.62913978793485" lon="9.404204283414561"><ele>418.5</ele><time>2026-04-28T13:21:32.884Z</time></trkpt><trkpt lat="39.62907663280815" lon="9.404303989545298"><ele>417.33333333333337</ele><time>2026-04-28T13:21:34.884Z</time></trkpt><trkpt lat="39.62899554416829" lon="9.404372231274476"><ele>416.1666666666667</ele><time>2026-04-28T13:21:36.884Z</time></trkpt><trkpt lat="39.628949555687285" lon="9.404431531089521"><ele>415.0</ele><time>2026-04-28T13:21:37.884Z</time></trkpt><trkpt lat="39.62885081653473" lon="9.404527325413149"><ele>415.00000000000006</ele><time>2026-04-28T13:21:39.884Z</time></trkpt><trkpt lat="39.62877778859221" lon="9.404651529074584"><ele>415.0</ele><time>2026-04-28T13:21:41.884Z</time></trkpt><trkpt lat="39.628741076882974" lon="9.404742049186819"><ele>415.0</ele><time>2026-04-28T13:21:42.884Z</time></trkpt><trkpt lat="39.62869053344369" lon="9.40482687888415"><ele>415.0</ele><time>2026-04-28T13:21:43.884Z</time></trkpt><trkpt lat="39.6286233625621" lon="9.404910563815891"><ele>415.00000000000006</ele><time>2026-04-28T13:21:44.884Z</time></trkpt><trkpt lat="39.62856979908796" lon="9.404977288322977"><ele>415.0</ele><time>2026-04-28T13:21:45.884Z</time></trkpt><trkpt lat="39.628505558645635" lon="9.405030666686217"><ele>413.6666666666667</ele><time>2026-04-28T13:21:46.884Z</time></trkpt><trkpt lat="39.628420650654874" lon="9.405074436436664"><ele>412.33333333333337</ele><time>2026-04-28T13:21:47.884Z</time></trkpt><trkpt lat="39.62835647996456" lon="9.4051002545805"><ele>411.0</ele><time>2026-04-28T13:21:48.884Z</time></trkpt><trkpt lat="39.62828462635649" lon="9.405147169460413"><ele>409.66666666666663</ele><time>2026-04-28T13:21:49.884Z</time></trkpt><trkpt lat="39.62823579274501" lon="9.405226478912178"><ele>408.3333333333333</ele><time>2026-04-28T13:21:50.884Z</time></trkpt><trkpt lat="39.62820456731469" lon="9.40530291701637"><ele>407.0</ele><time>2026-04-28T13:21:51.884Z</time></trkpt><trkpt lat="39.628186488724815" lon="9.405386327207717"><ele>406.3333333333333</ele><time>2026-04-28T13:21:52.884Z</time></trkpt><trkpt lat="39.628167012181905" lon="9.405504224234303"><ele>405.66666666666663</ele><time>2026-04-28T13:21:53.884Z</time></trkpt><trkpt lat="39.628149838474855" lon="9.405608274297592"><ele>405.0</ele><time>2026-04-28T13:21:54.884Z</time></trkpt><trkpt lat="39.628117776074184" lon="9.405709244642882"><ele>404.33333333333337</ele><time>2026-04-28T13:21:55.884Z</time></trkpt><trkpt lat="39.62808016977515" lon="9.405790787287016"><ele>403.6666666666667</ele><time>2026-04-28T13:21:56.884Z</time></trkpt><trkpt lat="39.628024626620586" lon="9.405847710582409"><ele>403.0</ele><time>2026-04-28T13:21:57.884Z</time></trkpt><trkpt lat="39.62797020464823" lon="9.405912671463778"><ele>403.0</ele><time>2026-04-28T13:21:58.884Z</time></trkpt><trkpt lat="39.62792408608726" lon="9.406009050285101"><ele>403.0</ele><time>2026-04-28T13:21:59.884Z</time></trkpt><trkpt lat="39.62787028463159" lon="9.406123916703958"><ele>403.0</ele><time>2026-04-28T13:22:00.884Z</time></trkpt><trkpt lat="39.627806490654514" lon="9.406248307673613"><ele>403.0</ele><time>2026-04-28T13:22:01.884Z</time></trkpt><trkpt lat="39.62776169449829" lon="9.406340413045397"><ele>403.0</ele><time>2026-04-28T13:22:02.884Z</time></trkpt><trkpt lat="39.627724906745314" lon="9.406429959989989"><ele>403.0</ele><time>2026-04-28T13:22:03.884Z</time></trkpt><trkpt lat="39.62769905935007" lon="9.4065268480939"><ele>403.0</ele><time>2026-04-28T13:22:04.884Z</time></trkpt><trkpt lat="39.62766797647843" lon="9.406628088918076"><ele>403.0</ele><time>2026-04-28T13:22:05.884Z</time></trkpt><trkpt lat="39.62763746792291" lon="9.406720075625236"><ele>403.0</ele><time>2026-04-28T13:22:06.884Z</time></trkpt><trkpt lat="39.627610094697964" lon="9.406861985007001"><ele>403.0</ele><time>2026-04-28T13:22:08.884Z</time></trkpt><trkpt lat="39.62758079466582" lon="9.407020376719966"><ele>403.00000000000006</ele><time>2026-04-28T13:22:10.884Z</time></trkpt><trkpt lat="39.62754169845648" lon="9.407099517871638"><ele>403.0</ele><time>2026-04-28T13:22:11.884Z</time></trkpt><trkpt lat="39.627493850614655" lon="9.407177767739327"><ele>403.0</ele><time>2026-04-28T13:22:12.884Z</time></trkpt><trkpt lat="39.627449515462054" lon="9.407250287200398"><ele>403.0</ele><time>2026-04-28T13:22:13.884Z</time></trkpt><trkpt lat="39.62741095537783" lon="9.407328027503851"><ele>403.00000000000006</ele><time>2026-04-28T13:22:14.884Z</time></trkpt><trkpt lat="39.62737880740718" lon="9.407424663439576"><ele>403.0</ele><time>2026-04-28T13:22:15.884Z</time></trkpt><trkpt lat="39.62734331952145" lon="9.407524081319462"><ele>403.14285714285717</ele><time>2026-04-28T13:22:16.884Z</time></trkpt><trkpt lat="39.62731234102142" lon="9.407596030798222"><ele>403.2857142857143</ele><time>2026-04-28T13:22:17.884Z</time></trkpt><trkpt lat="39.62726903527011" lon="9.40765751025535"><ele>403.42857142857144</ele><time>2026-04-28T13:22:18.884Z</time></trkpt><trkpt lat="39.62722449966676" lon="9.407718043913214"><ele>403.57142857142856</ele><time>2026-04-28T13:22:19.884Z</time></trkpt><trkpt lat="39.627181469175184" lon="9.407802263257583"><ele>403.71428571428567</ele><time>2026-04-28T13:22:20.884Z</time></trkpt><trkpt lat="39.62715022710919" lon="9.40788668487225"><ele>403.85714285714283</ele><time>2026-04-28T13:22:21.884Z</time></trkpt><trkpt lat="39.627129645590045" lon="9.407981586494468"><ele>404.0</ele><time>2026-04-28T13:22:22.884Z</time></trkpt><trkpt lat="39.62711059120766" lon="9.40807443142338"><ele>403.8333333333333</ele><time>2026-04-28T13:22:23.884Z</time></trkpt><trkpt lat="39.62707782770036" lon="9.408182547465154"><ele>403.66666666666663</ele><time>2026-04-28T13:22:24.884Z</time></trkpt><trkpt lat="39.627040292779995" lon="9.408259140307257"><ele>403.5</ele><time>2026-04-28T13:22:25.884Z</time></trkpt><trkpt lat="39.62697465938708" lon="9.40837828750529"><ele>403.33333333333337</ele><time>2026-04-28T13:22:27.884Z</time></trkpt><trkpt lat="39.626918461767715" lon="9.408430354830811"><ele>403.1666666666667</ele><time>2026-04-28T13:22:29.884Z</time></trkpt><trkpt lat="39.62693349378463" lon="9.408520317866659"><ele>403.0</ele><time>2026-04-28T13:22:32.884Z</time></trkpt><trkpt lat="39.626974717546425" lon="9.40844822841556"><ele>402.0</ele><time>2026-04-28T13:22:35.884Z</time></trkpt><trkpt lat="39.627011478167795" lon="9.408332272185811"><ele>401.0</ele><time>2026-04-28T13:22:37.884Z</time></trkpt><trkpt lat="39.62710214792305" lon="9.408283535772723"><ele>400.0</ele><time>2026-04-28T13:22:39.884Z</time></trkpt><trkpt lat="39.62719921471679" lon="9.408274888145534"><ele>399.0</ele><time>2026-04-28T13:22:41.881Z</time></trkpt><trkpt lat="39.627292264231436" lon="9.4082244484032"><ele>398.0</ele><time>2026-04-28T13:22:43.881Z</time></trkpt><trkpt lat="39.627393553147805" lon="9.408146415791911"><ele>398.0</ele><time>2026-04-28T13:22:45.882Z</time></trkpt><trkpt lat="39.62749036211094" lon="9.40806122431891"><ele>398.0</ele><time>2026-04-28T13:22:47.882Z</time></trkpt><trkpt lat="39.62756210952455" lon="9.40801076775435"><ele>398.0</ele><time>2026-04-28T13:22:49.881Z</time></trkpt><trkpt lat="39.62765487027867" lon="9.407983909685031"><ele>398.0</ele><time>2026-04-28T13:22:51.881Z</time></trkpt><trkpt lat="39.627772013919085" lon="9.407978030810046"><ele>398.0</ele><time>2026-04-28T13:22:53.882Z</time></trkpt><trkpt lat="39.627881873176406" lon="9.408021640614516"><ele>395.79999999999995</ele><time>2026-04-28T13:22:55.882Z</time></trkpt><trkpt lat="39.627984210991194" lon="9.408105167547042"><ele>393.6</ele><time>2026-04-28T13:22:57.882Z</time></trkpt><trkpt lat="39.628068845976294" lon="9.408175636421694"><ele>391.4</ele><time>2026-04-28T13:22:59.882Z</time></trkpt><trkpt lat="39.62817312352144" lon="9.408217477182015"><ele>389.20000000000005</ele><time>2026-04-28T13:23:01.882Z</time></trkpt><trkpt lat="39.628276230224685" lon="9.408288002789769"><ele>387.0</ele><time>2026-04-28T13:23:03.882Z</time></trkpt><trkpt lat="39.62837506255171" lon="9.40835435619661"><ele>387.0</ele><time>2026-04-28T13:23:05.882Z</time></trkpt><trkpt lat="39.62843355255891" lon="9.408385881823389"><ele>387.0</ele><time>2026-04-28T13:23:06.882Z</time></trkpt><trkpt lat="39.628498989405166" lon="9.408419296783087"><ele>387.0</ele><time>2026-04-28T13:23:07.882Z</time></trkpt><trkpt lat="39.62856533384693" lon="9.408442133024423"><ele>387.0</ele><time>2026-04-28T13:23:08.882Z</time></trkpt><trkpt lat="39.628682017843204" lon="9.4084715963564"><ele>387.0</ele><time>2026-04-28T13:23:10.882Z</time></trkpt><trkpt lat="39.6287746177561" lon="9.408473098031159"><ele>387.0</ele><time>2026-04-28T13:23:12.882Z</time></trkpt><trkpt lat="39.62887300927913" lon="9.408416469378405"><ele>385.8</ele><time>2026-04-28T13:23:14.882Z</time></trkpt><trkpt lat="39.62895112935755" lon="9.408304043215194"><ele>384.6</ele><time>2026-04-28T13:23:16.882Z</time></trkpt><trkpt lat="39.62904915388835" lon="9.408192568616663"><ele>383.40000000000003</ele><time>2026-04-28T13:23:18.882Z</time></trkpt><trkpt lat="39.629136513375435" lon="9.40818504230293"><ele>382.20000000000005</ele><time>2026-04-28T13:23:20.882Z</time></trkpt><trkpt lat="39.629246710948905" lon="9.408169527755888"><ele>381.0</ele><time>2026-04-28T13:23:22.882Z</time></trkpt><trkpt lat="39.62937386157491" lon="9.408176354951378"><ele>381.0</ele><time>2026-04-28T13:23:24.882Z</time></trkpt><trkpt lat="39.62943998154403" lon="9.408177034878946"><ele>381.0</ele><time>2026-04-28T13:23:25.882Z</time></trkpt><trkpt lat="39.62951612094613" lon="9.408172075359845"><ele>381.0</ele><time>2026-04-28T13:23:26.882Z</time></trkpt><trkpt lat="39.62958306198764" lon="9.408156977215521"><ele>381.0</ele><time>2026-04-28T13:23:27.882Z</time></trkpt><trkpt lat="39.62965229365411" lon="9.408139779561774"><ele>381.0</ele><time>2026-04-28T13:23:28.882Z</time></trkpt><trkpt lat="39.62974106549067" lon="9.408153628811258"><ele>381.0</ele><time>2026-04-28T13:23:30.882Z</time></trkpt><trkpt lat="39.62981240712703" lon="9.408244834319895"><ele>379.4</ele><time>2026-04-28T13:23:33.882Z</time></trkpt><trkpt lat="39.62983424646472" lon="9.408371239085671"><ele>377.8</ele><time>2026-04-28T13:23:35.882Z</time></trkpt><trkpt lat="39.629836178967075" lon="9.408519452265113"><ele>376.2</ele><time>2026-04-28T13:23:37.882Z</time></trkpt><trkpt lat="39.62984327960701" lon="9.408645235004546"><ele>374.59999999999997</ele><time>2026-04-28T13:23:39.882Z</time></trkpt><trkpt lat="39.62986656999605" lon="9.408763008557331"><ele>373.0</ele><time>2026-04-28T13:23:41.882Z</time></trkpt><trkpt lat="39.62988689774286" lon="9.408866268734227"><ele>372.3333333333333</ele><time>2026-04-28T13:23:43.882Z</time></trkpt><trkpt lat="39.62990346452915" lon="9.408952350906956"><ele>371.66666666666663</ele><time>2026-04-28T13:23:46.882Z</time></trkpt><trkpt lat="39.629889935633614" lon="9.409055777887609"><ele>371.0</ele><time>2026-04-28T13:23:49.882Z</time></trkpt><trkpt lat="39.62987454921023" lon="9.40918155556924"><ele>370.3333333333333</ele><time>2026-04-28T13:23:51.882Z</time></trkpt><trkpt lat="39.62987010267412" lon="9.409270889246825"><ele>369.6666666666667</ele><time>2026-04-28T13:23:54.882Z</time></trkpt><trkpt lat="39.62986617972819" lon="9.409355985116468"><ele>369.0</ele><time>2026-04-28T13:23:57.882Z</time></trkpt><trkpt lat="39.629855592559416" lon="9.40945971147528"><ele>369.0</ele><time>2026-04-28T13:23:59.882Z</time></trkpt><trkpt lat="39.6298535591235" lon="9.409599253405258"><ele>369.0</ele><time>2026-04-28T13:24:01.882Z</time></trkpt><trkpt lat="39.6298720581155" lon="9.409740141132582"><ele>369.0</ele><time>2026-04-28T13:24:03.882Z</time></trkpt><trkpt lat="39.62993653473932" lon="9.409849750982408"><ele>369.0</ele><time>2026-04-28T13:24:05.882Z</time></trkpt><trkpt lat="39.6300411196967" lon="9.409942400984507"><ele>369.1428571428571</ele><time>2026-04-28T13:24:07.882Z</time></trkpt><trkpt lat="39.63010287388088" lon="9.410004409360441"><ele>369.2857142857143</ele><time>2026-04-28T13:24:08.882Z</time></trkpt><trkpt lat="39.630160799872684" lon="9.410081068404981"><ele>369.42857142857144</ele><time>2026-04-28T13:24:09.882Z</time></trkpt><trkpt lat="39.63020930853048" lon="9.410149357204805"><ele>369.57142857142856</ele><time>2026-04-28T13:24:10.882Z</time></trkpt><trkpt lat="39.63025187779508" lon="9.410210410604625"><ele>369.7142857142857</ele><time>2026-04-28T13:24:11.882Z</time></trkpt><trkpt lat="39.630300320403734" lon="9.410282231486125"><ele>369.85714285714283</ele><time>2026-04-28T13:24:12.882Z</time></trkpt><trkpt lat="39.63035085609334" lon="9.410344864933576"><ele>370.0</ele><time>2026-04-28T13:24:13.882Z</time></trkpt><trkpt lat="39.630400098415805" lon="9.41041490540856"><ele>370.0</ele><time>2026-04-28T13:24:15.882Z</time></trkpt><trkpt lat="39.630458146832694" lon="9.410469698896087"><ele>370.0</ele><time>2026-04-28T13:24:28.883Z</time></trkpt><trkpt lat="39.630489772858155" lon="9.41054450068106"><ele>370.0</ele><time>2026-04-28T13:24:32.883Z</time></trkpt><trkpt lat="39.63054525701674" lon="9.410589191681462"><ele>370.0</ele><time>2026-04-28T13:24:36.883Z</time></trkpt><trkpt lat="39.6306221312033" lon="9.41070076038824"><ele>370.0</ele><time>2026-04-28T13:24:39.883Z</time></trkpt><trkpt lat="39.63071692338864" lon="9.410804310723858"><ele>370.0</ele><time>2026-04-28T13:24:41.883Z</time></trkpt><trkpt lat="39.630767439408686" lon="9.410868834123647"><ele>370.0</ele><time>2026-04-28T13:24:42.883Z</time></trkpt><trkpt lat="39.630816733856825" lon="9.410934280002808"><ele>370.0</ele><time>2026-04-28T13:24:43.883Z</time></trkpt><trkpt lat="39.63086811275395" lon="9.411002445789386"><ele>370.0</ele><time>2026-04-28T13:24:44.883Z</time></trkpt><trkpt lat="39.630915158098446" lon="9.411057501469534"><ele>370.0</ele><time>2026-04-28T13:24:45.883Z</time></trkpt><trkpt lat="39.630988542521635" lon="9.411111451386116"><ele>370.0</ele><time>2026-04-28T13:24:47.88Z</time></trkpt><trkpt lat="39.63107759854492" lon="9.41107860620895"><ele>370.0</ele><time>2026-04-28T13:24:49.88Z</time></trkpt><trkpt lat="39.631173269538515" lon="9.410960634463095"><ele>370.66666666666663</ele><time>2026-04-28T13:24:51.88Z</time></trkpt><trkpt lat="39.63120337924195" lon="9.410870503288987"><ele>371.3333333333333</ele><time>2026-04-28T13:24:52.88Z</time></trkpt><trkpt lat="39.63122757407136" lon="9.41076344322362"><ele>372.0</ele><time>2026-04-28T13:24:53.879Z</time></trkpt><trkpt lat="39.631248789102216" lon="9.410660074828954"><ele>372.6666666666667</ele><time>2026-04-28T13:24:54.879Z</time></trkpt><trkpt lat="39.631270679514365" lon="9.410553460873366"><ele>373.33333333333337</ele><time>2026-04-28T13:24:55.88Z</time></trkpt><trkpt lat="39.63129110887298" lon="9.41045049144768"><ele>374.0</ele><time>2026-04-28T13:24:56.88Z</time></trkpt><trkpt lat="39.63130927902166" lon="9.41033501693934"><ele>374.0</ele><time>2026-04-28T13:24:57.88Z</time></trkpt><trkpt lat="39.63132372093987" lon="9.410216566725893"><ele>374.0</ele><time>2026-04-28T13:24:58.88Z</time></trkpt><trkpt lat="39.63134296638127" lon="9.410112063032072"><ele>374.0</ele><time>2026-04-28T13:24:59.879Z</time></trkpt><trkpt lat="39.631364922087556" lon="9.410004097827805"><ele>374.0</ele><time>2026-04-28T13:25:00.879Z</time></trkpt><trkpt lat="39.63138962439802" lon="9.409903838608043"><ele>374.0</ele><time>2026-04-28T13:25:01.879Z</time></trkpt><trkpt lat="39.63141748491498" lon="9.4098017442175"><ele>374.0</ele><time>2026-04-28T13:25:02.879Z</time></trkpt><trkpt lat="39.6314517999754" lon="9.409694974200907"><ele>372.83333333333337</ele><time>2026-04-28T13:25:03.879Z</time></trkpt><trkpt lat="39.63149387790194" lon="9.409608065238631"><ele>371.6666666666667</ele><time>2026-04-28T13:25:04.879Z</time></trkpt><trkpt lat="39.6315409664503" lon="9.409530855085515"><ele>370.5</ele><time>2026-04-28T13:25:05.879Z</time></trkpt><trkpt lat="39.63159595628217" lon="9.409467041532698"><ele>369.3333333333333</ele><time>2026-04-28T13:25:06.879Z</time></trkpt><trkpt lat="39.63164821238711" lon="9.409410601048778"><ele>368.16666666666663</ele><time>2026-04-28T13:25:07.879Z</time></trkpt><trkpt lat="39.631722743496134" lon="9.409349957620368"><ele>367.0</ele><time>2026-04-28T13:25:08.879Z</time></trkpt><trkpt lat="39.6317984813172" lon="9.40929971646933"><ele>367.0</ele><time>2026-04-28T13:25:09.879Z</time></trkpt><trkpt lat="39.631862437931446" lon="9.409247292023938"><ele>367.0</ele><time>2026-04-28T13:25:10.879Z</time></trkpt><trkpt lat="39.63192748953722" lon="9.409203808845003"><ele>367.0</ele><time>2026-04-28T13:25:11.879Z</time></trkpt><trkpt lat="39.632054810046164" lon="9.409169209696685"><ele>367.0</ele><time>2026-04-28T13:25:13.879Z</time></trkpt><trkpt lat="39.63213642450261" lon="9.409156574107769"><ele>367.0</ele><time>2026-04-28T13:25:14.879Z</time></trkpt><trkpt lat="39.63219977197468" lon="9.40914803148402"><ele>367.0</ele><time>2026-04-28T13:25:15.879Z</time></trkpt><trkpt lat="39.632262928064684" lon="9.40914627444842"><ele>367.3333333333333</ele><time>2026-04-28T13:25:16.879Z</time></trkpt><trkpt lat="39.632380301787876" lon="9.409147570333069"><ele>367.66666666666663</ele><time>2026-04-28T13:25:18.879Z</time></trkpt><trkpt lat="39.6324492024736" lon="9.40914342924204"><ele>368.0</ele><time>2026-04-28T13:25:19.879Z</time></trkpt><trkpt lat="39.63251224956766" lon="9.409144117036485"><ele>368.3333333333333</ele><time>2026-04-28T13:25:20.879Z</time></trkpt><trkpt lat="39.63258280850142" lon="9.409144586795858"><ele>368.6666666666667</ele><time>2026-04-28T13:25:21.879Z</time></trkpt><trkpt lat="39.63264988507933" lon="9.409145994409128"><ele>369.0</ele><time>2026-04-28T13:25:22.879Z</time></trkpt><trkpt lat="39.6327657773903" lon="9.409162368733476"><ele>368.85714285714283</ele><time>2026-04-28T13:25:24.879Z</time></trkpt><trkpt lat="39.632828968862796" lon="9.409191716629163"><ele>368.71428571428567</ele><time>2026-04-28T13:25:25.879Z</time></trkpt><trkpt lat="39.63288087936521" lon="9.409238927964953"><ele>368.57142857142856</ele><time>2026-04-28T13:25:26.879Z</time></trkpt><trkpt lat="39.632929678667324" lon="9.409304822240586"><ele>368.42857142857144</ele><time>2026-04-28T13:25:27.879Z</time></trkpt><trkpt lat="39.63297642191383" lon="9.409388551590526"><ele>368.2857142857143</ele><time>2026-04-28T13:25:28.879Z</time></trkpt><trkpt lat="39.633022721839026" lon="9.409484395612425"><ele>368.14285714285717</ele><time>2026-04-28T13:25:29.879Z</time></trkpt><trkpt lat="39.63306095713216" lon="9.40957394546522"><ele>368.0</ele><time>2026-04-28T13:25:30.879Z</time></trkpt><trkpt lat="39.63309027525311" lon="9.409678264989791"><ele>368.33333333333337</ele><time>2026-04-28T13:25:31.879Z</time></trkpt><trkpt lat="39.63311092635568" lon="9.409786917853133"><ele>368.6666666666667</ele><time>2026-04-28T13:25:32.879Z</time></trkpt><trkpt lat="39.63312763773562" lon="9.409888425930102"><ele>369.0</ele><time>2026-04-28T13:25:33.879Z</time></trkpt><trkpt lat="39.63313372580108" lon="9.409991757018753"><ele>369.3333333333333</ele><time>2026-04-28T13:25:34.879Z</time></trkpt><trkpt lat="39.633123495414296" lon="9.410086496251644"><ele>369.66666666666663</ele><time>2026-04-28T13:25:35.88Z</time></trkpt><trkpt lat="39.633109975156756" lon="9.410183815137545"><ele>370.0</ele><time>2026-04-28T13:25:36.88Z</time></trkpt><trkpt lat="39.633084589452224" lon="9.410288288225887"><ele>370.0</ele><time>2026-04-28T13:25:37.88Z</time></trkpt><trkpt lat="39.63304777045057" lon="9.41039855472401"><ele>370.0</ele><time>2026-04-28T13:25:38.88Z</time></trkpt><trkpt lat="39.633007423845136" lon="9.410510866069599"><ele>370.0</ele><time>2026-04-28T13:25:39.88Z</time></trkpt><trkpt lat="39.63298795604581" lon="9.410608695704736"><ele>370.0</ele><time>2026-04-28T13:25:40.88Z</time></trkpt><trkpt lat="39.63298394433921" lon="9.410704132683971"><ele>370.0</ele><time>2026-04-28T13:25:41.88Z</time></trkpt><trkpt lat="39.63299242657353" lon="9.410811625405724"><ele>370.0</ele><time>2026-04-28T13:25:42.88Z</time></trkpt><trkpt lat="39.63300621019523" lon="9.410923894809141"><ele>370.5</ele><time>2026-04-28T13:25:43.88Z</time></trkpt><trkpt lat="39.63302488655419" lon="9.411032486781412"><ele>371.0</ele><time>2026-04-28T13:25:44.88Z</time></trkpt><trkpt lat="39.633041838103296" lon="9.411132297249896"><ele>371.5</ele><time>2026-04-28T13:25:45.88Z</time></trkpt><trkpt lat="39.6330542297999" lon="9.411242313684467"><ele>372.0</ele><time>2026-04-28T13:25:46.88Z</time></trkpt><trkpt lat="39.633073415230264" lon="9.41135085816534"><ele>372.5</ele><time>2026-04-28T13:25:47.88Z</time></trkpt><trkpt lat="39.633092115381565" lon="9.411472373366818"><ele>373.0</ele><time>2026-04-28T13:25:48.88Z</time></trkpt><trkpt lat="39.633100127149504" lon="9.411591920446417"><ele>373.16666666666663</ele><time>2026-04-28T13:25:49.88Z</time></trkpt><trkpt lat="39.63310280025629" lon="9.411705207117498"><ele>373.3333333333333</ele><time>2026-04-28T13:25:50.88Z</time></trkpt><trkpt lat="39.633104363880044" lon="9.41181252796496"><ele>373.5</ele><time>2026-04-28T13:25:51.88Z</time></trkpt><trkpt lat="39.63310543663519" lon="9.41189697065758"><ele>373.6666666666667</ele><time>2026-04-28T13:25:52.88Z</time></trkpt><trkpt lat="39.63311154802804" lon="9.411978582835282"><ele>373.83333333333337</ele><time>2026-04-28T13:25:53.88Z</time></trkpt><trkpt lat="39.6331104157916" lon="9.412116394085283"><ele>374.0</ele><time>2026-04-28T13:25:55.88Z</time></trkpt><trkpt lat="39.63310916460245" lon="9.412209365889606"><ele>372.83333333333337</ele><time>2026-04-28T13:25:57.88Z</time></trkpt><trkpt lat="39.6331638154123" lon="9.412286456510255"><ele>371.6666666666667</ele><time>2026-04-28T13:27:23.878Z</time></trkpt><trkpt lat="39.63316800971261" lon="9.41237802502348"><ele>370.5</ele><time>2026-04-28T13:28:03.878Z</time></trkpt><trkpt lat="39.633166738985054" lon="9.412470624151107"><ele>369.3333333333333</ele><time>2026-04-28T13:29:23.877Z</time></trkpt><trkpt lat="39.6332076097944" lon="9.412544271246187"><ele>368.16666666666663</ele><time>2026-04-28T13:29:25.877Z</time></trkpt><trkpt lat="39.633237991210756" lon="9.412635655880802"><ele>367.0</ele><time>2026-04-28T13:29:28.877Z</time></trkpt><trkpt lat="39.63321807412571" lon="9.412738851240226"><ele>367.0</ele><time>2026-04-28T13:29:30.877Z</time></trkpt><trkpt lat="39.63318768319655" lon="9.412829893916223"><ele>367.0</ele><time>2026-04-28T13:29:32.877Z</time></trkpt><trkpt lat="39.63314092969418" lon="9.412904127635484"><ele>367.0</ele><time>2026-04-28T13:29:34.877Z</time></trkpt><trkpt lat="39.63306020081124" lon="9.412948976799186"><ele>367.0</ele><time>2026-04-28T13:29:36.877Z</time></trkpt><trkpt lat="39.632997070894795" lon="9.412965812399248"><ele>367.0</ele><time>2026-04-28T13:29:37.878Z</time></trkpt><trkpt lat="39.63292121270716" lon="9.412983393159832"><ele>367.0</ele><time>2026-04-28T13:29:38.878Z</time></trkpt><trkpt lat="39.6328551268506" lon="9.41300429920775"><ele>367.0</ele><time>2026-04-28T13:29:39.878Z</time></trkpt><trkpt lat="39.632792740920266" lon="9.413038995032961"><ele>367.20000000000005</ele><time>2026-04-28T13:29:40.878Z</time></trkpt><trkpt lat="39.63272615332624" lon="9.41312609028559"><ele>367.4</ele><time>2026-04-28T13:29:42.878Z</time></trkpt><trkpt lat="39.63271175627071" lon="9.41330867493027"><ele>367.6</ele><time>2026-04-28T13:29:44.878Z</time></trkpt><trkpt lat="39.63271423483954" lon="9.413427902628747"><ele>367.79999999999995</ele><time>2026-04-28T13:29:45.878Z</time></trkpt><trkpt lat="39.63272598994858" lon="9.413554431762808"><ele>368.0</ele><time>2026-04-28T13:29:46.878Z</time></trkpt><trkpt lat="39.63273411655803" lon="9.413654433563467"><ele>368.0</ele><time>2026-04-28T13:29:47.878Z</time></trkpt><trkpt lat="39.632774066424105" lon="9.41377113167596"><ele>368.0</ele><time>2026-04-28T13:29:49.878Z</time></trkpt><trkpt lat="39.632832506684" lon="9.41380690226531"><ele>368.0</ele><time>2026-04-28T13:29:51.878Z</time></trkpt><trkpt lat="39.632885517527626" lon="9.413891952050475"><ele>368.0</ele><time>2026-04-28T13:29:53.878Z</time></trkpt><trkpt lat="39.63292532458411" lon="9.414056936074278"><ele>368.0</ele><time>2026-04-28T13:29:55.878Z</time></trkpt><trkpt lat="39.63292459649707" lon="9.414149577144672"><ele>363.79999999999995</ele><time>2026-04-28T13:29:56.878Z</time></trkpt><trkpt lat="39.63291528514198" lon="9.414239121404766"><ele>359.6</ele><time>2026-04-28T13:29:57.878Z</time></trkpt><trkpt lat="39.63289366548979" lon="9.41439627113987"><ele>355.4</ele><time>2026-04-28T13:29:59.878Z</time></trkpt><trkpt lat="39.63285949853873" lon="9.414554354243764"><ele>351.20000000000005</ele><time>2026-04-28T13:30:01.878Z</time></trkpt><trkpt lat="39.63285380628581" lon="9.41469680812268"><ele>347.0</ele><time>2026-04-28T13:30:03.878Z</time></trkpt><trkpt lat="39.63287831470203" lon="9.414860158188462"><ele>345.20000000000005</ele><time>2026-04-28T13:30:05.878Z</time></trkpt><trkpt lat="39.632884531324386" lon="9.414948318472153"><ele>343.4</ele><time>2026-04-28T13:30:06.878Z</time></trkpt><trkpt lat="39.63287460045161" lon="9.41511014798664"><ele>341.6</ele><time>2026-04-28T13:30:08.878Z</time></trkpt><trkpt lat="39.63285005590881" lon="9.415250894332573"><ele>339.79999999999995</ele><time>2026-04-28T13:30:10.878Z</time></trkpt><trkpt lat="39.63281019429998" lon="9.415382594186246"><ele>338.0</ele><time>2026-04-28T13:30:12.878Z</time></trkpt><trkpt lat="39.632715284278" lon="9.415495000756096"><ele>338.0</ele><time>2026-04-28T13:30:14.878Z</time></trkpt><trkpt lat="39.632662674524504" lon="9.415565124904942"><ele>338.0</ele><time>2026-04-28T13:30:15.878Z</time></trkpt><trkpt lat="39.63261796309621" lon="9.415642868196974"><ele>338.0</ele><time>2026-04-28T13:30:16.878Z</time></trkpt><trkpt lat="39.63258283039951" lon="9.41572602477942"><ele>338.0</ele><time>2026-04-28T13:30:17.878Z</time></trkpt><trkpt lat="39.632542403368895" lon="9.415822205888418"><ele>338.0</ele><time>2026-04-28T13:30:18.878Z</time></trkpt><trkpt lat="39.63250048330133" lon="9.4159010666627"><ele>338.0</ele><time>2026-04-28T13:30:19.878Z</time></trkpt><trkpt lat="39.63245581606232" lon="9.415971483144304"><ele>338.0</ele><time>2026-04-28T13:30:20.878Z</time></trkpt><trkpt lat="39.63240704082106" lon="9.416044195318005"><ele>338.0</ele><time>2026-04-28T13:30:21.878Z</time></trkpt><trkpt lat="39.63236298163619" lon="9.41612044677998"><ele>338.0</ele><time>2026-04-28T13:30:22.878Z</time></trkpt><trkpt lat="39.632322527945234" lon="9.416203554281958"><ele>338.0</ele><time>2026-04-28T13:30:23.878Z</time></trkpt><trkpt lat="39.63228788040971" lon="9.416291164016235"><ele>338.0</ele><time>2026-04-28T13:30:24.878Z</time></trkpt><trkpt lat="39.63226425945693" lon="9.416377956638382"><ele>338.0</ele><time>2026-04-28T13:30:25.878Z</time></trkpt><trkpt lat="39.63224002471983" lon="9.416474752839504"><ele>338.0</ele><time>2026-04-28T13:30:26.878Z</time></trkpt><trkpt lat="39.63220107700927" lon="9.41663532333478"><ele>335.59999999999997</ele><time>2026-04-28T13:30:28.878Z</time></trkpt><trkpt lat="39.63217451338567" lon="9.41670957601364"><ele>333.2</ele><time>2026-04-28T13:30:29.878Z</time></trkpt><trkpt lat="39.63209316815756" lon="9.41682122169087"><ele>330.8</ele><time>2026-04-28T13:30:31.878Z</time></trkpt><trkpt lat="39.632034223713454" lon="9.416985016134012"><ele>328.4</ele><time>2026-04-28T13:30:33.878Z</time></trkpt><trkpt lat="39.632015132185614" lon="9.417079335261365"><ele>326.0</ele><time>2026-04-28T13:30:34.878Z</time></trkpt><trkpt lat="39.632009663769495" lon="9.417238088832018"><ele>325.5</ele><time>2026-04-28T13:30:36.878Z</time></trkpt><trkpt lat="39.632011117861836" lon="9.417321790230062"><ele>325.0</ele><time>2026-04-28T13:30:37.878Z</time></trkpt><trkpt lat="39.6320278854455" lon="9.41745006333946"><ele>324.5</ele><time>2026-04-28T13:30:39.878Z</time></trkpt><trkpt lat="39.63207292102452" lon="9.41752509528571"><ele>324.0</ele><time>2026-04-28T13:30:40.878Z</time></trkpt><trkpt lat="39.63213104254464" lon="9.417590020918897"><ele>323.5</ele><time>2026-04-28T13:30:41.878Z</time></trkpt><trkpt lat="39.632213152756364" lon="9.41763522284725"><ele>323.0</ele><time>2026-04-28T13:30:42.878Z</time></trkpt><trkpt lat="39.632301327271996" lon="9.417677984545511"><ele>323.0</ele><time>2026-04-28T13:30:43.878Z</time></trkpt><trkpt lat="39.63238813838599" lon="9.417698045623725"><ele>323.0</ele><time>2026-04-28T13:30:44.878Z</time></trkpt><trkpt lat="39.632484004640794" lon="9.417708596296407"><ele>323.0</ele><time>2026-04-28T13:30:45.878Z</time></trkpt><trkpt lat="39.63258329293358" lon="9.41772112509472"><ele>323.0</ele><time>2026-04-28T13:30:46.878Z</time></trkpt><trkpt lat="39.632661644624754" lon="9.417729506243445"><ele>323.0</ele><time>2026-04-28T13:30:47.878Z</time></trkpt><trkpt lat="39.63273325939026" lon="9.417730669512835"><ele>323.0</ele><time>2026-04-28T13:30:48.878Z</time></trkpt><trkpt lat="39.63280254701391" lon="9.417749058381313"><ele>323.0</ele><time>2026-04-28T13:30:49.878Z</time></trkpt><trkpt lat="39.63286427442564" lon="9.417769271021786"><ele>323.0</ele><time>2026-04-28T13:30:50.878Z</time></trkpt><trkpt lat="39.63294025844936" lon="9.417803017628197"><ele>323.0</ele><time>2026-04-28T13:30:51.878Z</time></trkpt><trkpt lat="39.633018662484" lon="9.417842859751772"><ele>323.0</ele><time>2026-04-28T13:30:52.878Z</time></trkpt><trkpt lat="39.63310168724025" lon="9.417876989023853"><ele>323.0</ele><time>2026-04-28T13:30:53.878Z</time></trkpt><trkpt lat="39.63318716654458" lon="9.417905699611762"><ele>323.0</ele><time>2026-04-28T13:30:54.878Z</time></trkpt><trkpt lat="39.633272706002195" lon="9.417924964168272"><ele>323.0</ele><time>2026-04-28T13:30:55.878Z</time></trkpt><trkpt lat="39.63336254533879" lon="9.417946969823165"><ele>323.0</ele><time>2026-04-28T13:30:56.878Z</time></trkpt><trkpt lat="39.63345268025381" lon="9.417973721381918"><ele>323.0</ele><time>2026-04-28T13:30:57.878Z</time></trkpt><trkpt lat="39.633523067661436" lon="9.41799421359659"><ele>323.0</ele><time>2026-04-28T13:30:58.878Z</time></trkpt><trkpt lat="39.63359671524291" lon="9.4180187154119"><ele>323.0</ele><time>2026-04-28T13:30:59.878Z</time></trkpt><trkpt lat="39.633690569453556" lon="9.418048714399927"><ele>323.0</ele><time>2026-04-28T13:31:00.878Z</time></trkpt><trkpt lat="39.63378623845451" lon="9.418085273421044"><ele>324.0</ele><time>2026-04-28T13:31:01.878Z</time></trkpt><trkpt lat="39.63384977381014" lon="9.418114510240132"><ele>325.0</ele><time>2026-04-28T13:31:02.878Z</time></trkpt><trkpt lat="39.633903734952305" lon="9.418157951380964"><ele>326.0</ele><time>2026-04-28T13:31:03.878Z</time></trkpt><trkpt lat="39.63398019669572" lon="9.41829307367797"><ele>327.0</ele><time>2026-04-28T13:31:05.876Z</time></trkpt><trkpt lat="39.634008330234316" lon="9.418387641733064"><ele>328.0</ele><time>2026-04-28T13:31:06.876Z</time></trkpt><trkpt lat="39.63403177740316" lon="9.418500410168948"><ele>329.0</ele><time>2026-04-28T13:31:07.876Z</time></trkpt><trkpt lat="39.63405583573174" lon="9.418628428569125"><ele>329.0</ele><time>2026-04-28T13:31:08.876Z</time></trkpt><trkpt lat="39.63406424134591" lon="9.418755299760988"><ele>329.0</ele><time>2026-04-28T13:31:09.876Z</time></trkpt><trkpt lat="39.63407108958729" lon="9.418877479645571"><ele>329.0</ele><time>2026-04-28T13:31:10.876Z</time></trkpt><trkpt lat="39.63408977803803" lon="9.419001267522665"><ele>329.0</ele><time>2026-04-28T13:31:11.876Z</time></trkpt><trkpt lat="39.634098187820065" lon="9.41911335595715"><ele>329.0</ele><time>2026-04-28T13:31:12.876Z</time></trkpt><trkpt lat="39.6341159661709" lon="9.419227977064773"><ele>330.2</ele><time>2026-04-28T13:31:13.875Z</time></trkpt><trkpt lat="39.634141363658024" lon="9.419368126216238"><ele>331.4</ele><time>2026-04-28T13:31:14.875Z</time></trkpt><trkpt lat="39.63415721990416" lon="9.419507710280412"><ele>332.6</ele><time>2026-04-28T13:31:15.875Z</time></trkpt><trkpt lat="39.6341778070805" lon="9.419636092987158"><ele>333.8</ele><time>2026-04-28T13:31:16.875Z</time></trkpt><trkpt lat="39.63420047843509" lon="9.419762007305406"><ele>335.0</ele><time>2026-04-28T13:31:17.875Z</time></trkpt><trkpt lat="39.63422734905143" lon="9.41990276367315"><ele>335.2</ele><time>2026-04-28T13:31:18.875Z</time></trkpt><trkpt lat="39.63425006297185" lon="9.420044403993959"><ele>335.4</ele><time>2026-04-28T13:31:19.875Z</time></trkpt><trkpt lat="39.634273152122674" lon="9.420171800518558"><ele>335.6</ele><time>2026-04-28T13:31:20.875Z</time></trkpt><trkpt lat="39.634290886737524" lon="9.42027844426437"><ele>335.8</ele><time>2026-04-28T13:31:21.875Z</time></trkpt><trkpt lat="39.63435194289008" lon="9.420360287576365"><ele>336.0</ele><time>2026-04-28T13:31:23.875Z</time></trkpt><trkpt lat="39.63446360427573" lon="9.420331792478448"><ele>335.20000000000005</ele><time>2026-04-28T13:31:25.875Z</time></trkpt><trkpt lat="39.63454546481236" lon="9.420306023829164"><ele>334.40000000000003</ele><time>2026-04-28T13:31:26.875Z</time></trkpt><trkpt lat="39.63464786439717" lon="9.420278620255301"><ele>333.6</ele><time>2026-04-28T13:31:27.875Z</time></trkpt><trkpt lat="39.63474723831053" lon="9.420258240994858"><ele>332.8</ele><time>2026-04-28T13:31:28.875Z</time></trkpt><trkpt lat="39.63484938424427" lon="9.420244134430787"><ele>332.0</ele><time>2026-04-28T13:31:29.875Z</time></trkpt><trkpt lat="39.634941782917664" lon="9.420241306250567"><ele>332.0</ele><time>2026-04-28T13:31:30.875Z</time></trkpt><trkpt lat="39.63502454503221" lon="9.420235434664601"><ele>332.0</ele><time>2026-04-28T13:31:31.875Z</time></trkpt><trkpt lat="39.635113458836024" lon="9.420214216234557"><ele>332.0</ele><time>2026-04-28T13:31:32.875Z</time></trkpt><trkpt lat="39.635193364673974" lon="9.420188032968817"><ele>332.0</ele><time>2026-04-28T13:31:33.875Z</time></trkpt><trkpt lat="39.63525584708473" lon="9.420162736686049"><ele>332.0</ele><time>2026-04-28T13:31:34.875Z</time></trkpt><trkpt lat="39.63531833400239" lon="9.420148499987452"><ele>332.0</ele><time>2026-04-28T13:31:35.875Z</time></trkpt><trkpt lat="39.635448496253346" lon="9.420140384756868"><ele>333.0</ele><time>2026-04-28T13:31:37.875Z</time></trkpt><trkpt lat="39.63551737946114" lon="9.420134474709457"><ele>334.0</ele><time>2026-04-28T13:31:38.875Z</time></trkpt><trkpt lat="39.63559768502359" lon="9.420116930915096"><ele>335.0</ele><time>2026-04-28T13:31:39.875Z</time></trkpt><trkpt lat="39.635688480494466" lon="9.420099118849942"><ele>336.0</ele><time>2026-04-28T13:31:40.875Z</time></trkpt><trkpt lat="39.63576614871918" lon="9.420080492789966"><ele>337.0</ele><time>2026-04-28T13:31:41.875Z</time></trkpt><trkpt lat="39.63588901624063" lon="9.420062473348702"><ele>338.0</ele><time>2026-04-28T13:31:43.875Z</time></trkpt><trkpt lat="39.63595768746962" lon="9.420048812835129"><ele>338.0</ele><time>2026-04-28T13:31:44.875Z</time></trkpt><trkpt lat="39.636035401677375" lon="9.42003272337967"><ele>338.0</ele><time>2026-04-28T13:31:45.875Z</time></trkpt><trkpt lat="39.63610713588274" lon="9.42002567878621"><ele>338.0</ele><time>2026-04-28T13:31:46.875Z</time></trkpt><trkpt lat="39.63619066508175" lon="9.420015632522892"><ele>338.0</ele><time>2026-04-28T13:31:47.875Z</time></trkpt><trkpt lat="39.63627498806711" lon="9.42000658002953"><ele>338.0</ele><time>2026-04-28T13:31:48.875Z</time></trkpt><trkpt lat="39.63634228575373" lon="9.419999870423869"><ele>338.0</ele><time>2026-04-28T13:31:49.875Z</time></trkpt><trkpt lat="39.63641819789821" lon="9.419996205454273"><ele>339.0</ele><time>2026-04-28T13:31:50.875Z</time></trkpt><trkpt lat="39.636527447100804" lon="9.420015839549853"><ele>340.0</ele><time>2026-04-28T13:31:52.875Z</time></trkpt><trkpt lat="39.636600703868204" lon="9.420093434049843"><ele>341.0</ele><time>2026-04-28T13:31:54.875Z</time></trkpt><trkpt lat="39.63665143104217" lon="9.420242090808134"><ele>342.0</ele><time>2026-04-28T13:31:56.875Z</time></trkpt><trkpt lat="39.63667078447623" lon="9.42033885213724"><ele>343.0</ele><time>2026-04-28T13:31:57.875Z</time></trkpt><trkpt lat="39.63668754071414" lon="9.420444936690124"><ele>343.59999999999997</ele><time>2026-04-28T13:31:58.875Z</time></trkpt><trkpt lat="39.63669605816225" lon="9.420559912528686"><ele>344.2</ele><time>2026-04-28T13:31:59.875Z</time></trkpt><trkpt lat="39.63669328307932" lon="9.42068343344176"><ele>344.8</ele><time>2026-04-28T13:32:00.875Z</time></trkpt><trkpt lat="39.63668383769016" lon="9.420810752238493"><ele>345.4</ele><time>2026-04-28T13:32:01.875Z</time></trkpt><trkpt lat="39.63667502609489" lon="9.42094197624705"><ele>346.0</ele><time>2026-04-28T13:32:02.875Z</time></trkpt><trkpt lat="39.63667520150007" lon="9.421049187263899"><ele>346.0</ele><time>2026-04-28T13:32:03.875Z</time></trkpt><trkpt lat="39.63666855543462" lon="9.42115803503814"><ele>346.0</ele><time>2026-04-28T13:32:04.875Z</time></trkpt><trkpt lat="39.63665877734384" lon="9.421266969391745"><ele>346.0</ele><time>2026-04-28T13:32:05.875Z</time></trkpt><trkpt lat="39.63665295214626" lon="9.421390900685047"><ele>346.0</ele><time>2026-04-28T13:32:06.875Z</time></trkpt><trkpt lat="39.63665988063003" lon="9.421487010401854"><ele>346.0</ele><time>2026-04-28T13:32:07.875Z</time></trkpt><trkpt lat="39.636672583477846" lon="9.42158583929834"><ele>346.0</ele><time>2026-04-28T13:32:09.875Z</time></trkpt><trkpt lat="39.636765825285174" lon="9.421612483189035"><ele>345.66666666666663</ele><time>2026-04-28T13:32:12.875Z</time></trkpt><trkpt lat="39.636839083490315" lon="9.421587045191847"><ele>345.3333333333333</ele><time>2026-04-28T13:32:15.875Z</time></trkpt><trkpt lat="39.636901574317314" lon="9.421574256387851"><ele>345.0</ele><time>2026-04-28T13:32:16.875Z</time></trkpt><trkpt lat="39.63698606542282" lon="9.421555524345413"><ele>344.6666666666667</ele><time>2026-04-28T13:32:17.875Z</time></trkpt><trkpt lat="39.637074747792056" lon="9.421536441923553"><ele>344.33333333333337</ele><time>2026-04-28T13:32:18.875Z</time></trkpt><trkpt lat="39.63716443280399" lon="9.42151846586081"><ele>344.0</ele><time>2026-04-28T13:32:19.875Z</time></trkpt><trkpt lat="39.63725200864206" lon="9.421505085966636"><ele>344.0</ele><time>2026-04-28T13:32:20.875Z</time></trkpt><trkpt lat="39.637339215777004" lon="9.421500061073806"><ele>344.0</ele><time>2026-04-28T13:32:21.875Z</time></trkpt><trkpt lat="39.63742091722841" lon="9.421488327093044"><ele>344.0</ele><time>2026-04-28T13:32:22.875Z</time></trkpt><trkpt lat="39.637501657045455" lon="9.421492415197674"><ele>344.0</ele><time>2026-04-28T13:32:23.876Z</time></trkpt><trkpt lat="39.637586554826406" lon="9.421490009248611"><ele>344.0</ele><time>2026-04-28T13:32:24.876Z</time></trkpt><trkpt lat="39.63767972663474" lon="9.421483626616133"><ele>344.0</ele><time>2026-04-28T13:32:25.876Z</time></trkpt><trkpt lat="39.6377650454294" lon="9.421484788430192"><ele>343.83333333333337</ele><time>2026-04-28T13:32:26.876Z</time></trkpt><trkpt lat="39.637840047908" lon="9.421478124785969"><ele>343.6666666666667</ele><time>2026-04-28T13:32:27.876Z</time></trkpt><trkpt lat="39.63791556611647" lon="9.421472622810217"><ele>343.5</ele><time>2026-04-28T13:32:28.876Z</time></trkpt><trkpt lat="39.637991703155166" lon="9.42148030773002"><ele>343.3333333333333</ele><time>2026-04-28T13:32:29.876Z</time></trkpt><trkpt lat="39.63807164520799" lon="9.42149892023087"><ele>343.16666666666663</ele><time>2026-04-28T13:32:30.876Z</time></trkpt><trkpt lat="39.6381465714862" lon="9.421522998935286"><ele>343.0</ele><time>2026-04-28T13:32:31.876Z</time></trkpt><trkpt lat="39.638209907746734" lon="9.421564605962223"><ele>343.0</ele><time>2026-04-28T13:32:32.876Z</time></trkpt><trkpt lat="39.63829459823871" lon="9.421540631735214"><ele>343.0</ele><time>2026-04-28T13:32:35.876Z</time></trkpt><trkpt lat="39.638369082702276" lon="9.421462489678213"><ele>343.0</ele><time>2026-04-28T13:32:37.876Z</time></trkpt><trkpt lat="39.638469766482324" lon="9.421363486443315"><ele>343.0</ele><time>2026-04-28T13:32:39.876Z</time></trkpt><trkpt lat="39.63855918214779" lon="9.42126337340061"><ele>343.0</ele><time>2026-04-28T13:32:41.876Z</time></trkpt><trkpt lat="39.63865967194891" lon="9.421192525807"><ele>341.57142857142856</ele><time>2026-04-28T13:32:43.876Z</time></trkpt><trkpt lat="39.63873934568506" lon="9.421161796790782"><ele>340.1428571428571</ele><time>2026-04-28T13:32:45.876Z</time></trkpt><trkpt lat="39.638822150209016" lon="9.421192786259441"><ele>338.7142857142857</ele><time>2026-04-28T13:32:48.876Z</time></trkpt><trkpt lat="39.638866820457665" lon="9.42125428933765"><ele>337.2857142857143</ele><time>2026-04-28T13:33:28.873Z</time></trkpt><trkpt lat="39.638917317614755" lon="9.421306735979748"><ele>335.85714285714283</ele><time>2026-04-28T13:34:08.874Z</time></trkpt><trkpt lat="39.638982498066945" lon="9.421321761427292"><ele>334.42857142857144</ele><time>2026-04-28T13:34:11.874Z</time></trkpt><trkpt lat="39.639016923309285" lon="9.421241084637012"><ele>333.0</ele><time>2026-04-28T13:34:13.874Z</time></trkpt><trkpt lat="39.6390353511736" lon="9.421098720593037"><ele>332.79999999999995</ele><time>2026-04-28T13:34:15.874Z</time></trkpt><trkpt lat="39.63907836364444" lon="9.42097668675058"><ele>332.6</ele><time>2026-04-28T13:34:17.874Z</time></trkpt><trkpt lat="39.63913424205906" lon="9.42084154012684"><ele>332.4</ele><time>2026-04-28T13:34:19.874Z</time></trkpt><trkpt lat="39.639208564970126" lon="9.420711993294011"><ele>332.20000000000005</ele><time>2026-04-28T13:34:21.874Z</time></trkpt><trkpt lat="39.63926410632521" lon="9.420654834706356"><ele>332.0</ele><time>2026-04-28T13:34:22.874Z</time></trkpt><trkpt lat="39.63931873034566" lon="9.420609277811883"><ele>332.0</ele><time>2026-04-28T13:34:23.874Z</time></trkpt><trkpt lat="39.63941827505937" lon="9.42052287666467"><ele>332.0</ele><time>2026-04-28T13:34:25.874Z</time></trkpt><trkpt lat="39.63950811467182" lon="9.420459655234596"><ele>332.0</ele><time>2026-04-28T13:34:27.874Z</time></trkpt><trkpt lat="39.63958275763404" lon="9.420411519783203"><ele>332.0</ele><time>2026-04-28T13:34:29.874Z</time></trkpt><trkpt lat="39.63967538739295" lon="9.420395611439714"><ele>332.0</ele><time>2026-04-28T13:34:31.874Z</time></trkpt><trkpt lat="39.639706049107204" lon="9.420471063827602"><ele>328.33333333333337</ele><time>2026-04-28T13:34:33.874Z</time></trkpt><trkpt lat="39.63968016205453" lon="9.420581121561971"><ele>324.6666666666667</ele><time>2026-04-28T13:34:35.874Z</time></trkpt><trkpt lat="39.63964149766517" lon="9.420647337665262"><ele>321.0</ele><time>2026-04-28T13:34:36.874Z</time></trkpt><trkpt lat="39.63960025146014" lon="9.420734665681346"><ele>317.3333333333333</ele><time>2026-04-28T13:34:37.874Z</time></trkpt><trkpt lat="39.63956820676337" lon="9.420834384667673"><ele>313.66666666666663</ele><time>2026-04-28T13:34:38.874Z</time></trkpt><trkpt lat="39.639546417841984" lon="9.420928697828518"><ele>310.0</ele><time>2026-04-28T13:34:39.874Z</time></trkpt><trkpt lat="39.639527239836255" lon="9.421028819805896"><ele>310.0</ele><time>2026-04-28T13:34:40.874Z</time></trkpt><trkpt lat="39.63952146779484" lon="9.421123519549637"><ele>310.0</ele><time>2026-04-28T13:34:41.874Z</time></trkpt><trkpt lat="39.63952142375589" lon="9.421218158915368"><ele>310.0</ele><time>2026-04-28T13:34:42.874Z</time></trkpt><trkpt lat="39.639531768785616" lon="9.421335579740967"><ele>310.0</ele><time>2026-04-28T13:34:43.874Z</time></trkpt><trkpt lat="39.6395697265159" lon="9.42146378545335"><ele>310.0</ele><time>2026-04-28T13:34:44.874Z</time></trkpt><trkpt lat="39.63960449049635" lon="9.42159293626896"><ele>310.0</ele><time>2026-04-28T13:34:45.874Z</time></trkpt><trkpt lat="39.639627753708766" lon="9.421719604070976"><ele>310.0</ele><time>2026-04-28T13:34:46.874Z</time></trkpt><trkpt lat="39.63964363884904" lon="9.421846728364507"><ele>310.0</ele><time>2026-04-28T13:34:47.874Z</time></trkpt><trkpt lat="39.63965556220405" lon="9.421942697880416"><ele>310.0</ele><time>2026-04-28T13:34:48.874Z</time></trkpt><trkpt lat="39.639683710625356" lon="9.422107074742774"><ele>310.0</ele><time>2026-04-28T13:34:50.874Z</time></trkpt><trkpt lat="39.63970587214832" lon="9.422203482190994"><ele>310.0</ele><time>2026-04-28T13:34:51.874Z</time></trkpt><trkpt lat="39.63972320195066" lon="9.422311452523793"><ele>311.16666666666663</ele><time>2026-04-28T13:34:52.874Z</time></trkpt><trkpt lat="39.639715575678736" lon="9.42239864157132"><ele>312.3333333333333</ele><time>2026-04-28T13:34:53.874Z</time></trkpt><trkpt lat="39.6397104242374" lon="9.422505203240078"><ele>313.5</ele><time>2026-04-28T13:34:54.874Z</time></trkpt><trkpt lat="39.63973088912242" lon="9.42266516597126"><ele>314.6666666666667</ele><time>2026-04-28T13:34:56.874Z</time></trkpt><trkpt lat="39.63974784747445" lon="9.422768480826822"><ele>315.83333333333337</ele><time>2026-04-28T13:34:57.874Z</time></trkpt><trkpt lat="39.63974582460347" lon="9.422871050354944"><ele>317.0</ele><time>2026-04-28T13:34:58.874Z</time></trkpt><trkpt lat="39.63971680939487" lon="9.422955866164148"><ele>318.0</ele><time>2026-04-28T13:34:59.874Z</time></trkpt><trkpt lat="39.63968344965479" lon="9.423056502327713"><ele>319.0</ele><time>2026-04-28T13:35:01.874Z</time></trkpt><trkpt lat="39.63972768793078" lon="9.423165871205173"><ele>320.0</ele><time>2026-04-28T13:35:04.874Z</time></trkpt><trkpt lat="39.63978272581811" lon="9.423213691191949"><ele>321.0</ele><time>2026-04-28T13:35:05.874Z</time></trkpt><trkpt lat="39.639898031048425" lon="9.423258728529552"><ele>322.0</ele><time>2026-04-28T13:35:07.874Z</time></trkpt><trkpt lat="39.63995303724214" lon="9.42321358714033"><ele>323.0</ele><time>2026-04-28T13:35:09.874Z</time></trkpt><trkpt lat="39.6400038389664" lon="9.423084268202564"><ele>321.5</ele><time>2026-04-28T13:35:11.874Z</time></trkpt><trkpt lat="39.64006776835922" lon="9.422958114118344"><ele>320.0</ele><time>2026-04-28T13:35:13.874Z</time></trkpt><trkpt lat="39.64013806344369" lon="9.42283521205632"><ele>318.5</ele><time>2026-04-28T13:35:15.874Z</time></trkpt><trkpt lat="39.64021208739023" lon="9.42269349900701"><ele>317.0</ele><time>2026-04-28T13:35:17.872Z</time></trkpt><trkpt lat="39.64029046369494" lon="9.422569710480529"><ele>318.0</ele><time>2026-04-28T13:35:19.872Z</time></trkpt><trkpt lat="39.640340497596306" lon="9.422502711488237"><ele>319.0</ele><time>2026-04-28T13:35:20.872Z</time></trkpt><trkpt lat="39.64044523626288" lon="9.422367954224654"><ele>320.0</ele><time>2026-04-28T13:35:22.872Z</time></trkpt><trkpt lat="39.640500377950424" lon="9.422277887943737"><ele>321.0</ele><time>2026-04-28T13:35:23.871Z</time></trkpt><trkpt lat="39.640549611022635" lon="9.422179300925437"><ele>322.0</ele><time>2026-04-28T13:35:24.872Z</time></trkpt><trkpt lat="39.64058981661657" lon="9.422092957709914"><ele>322.0</ele><time>2026-04-28T13:35:25.872Z</time></trkpt><trkpt lat="39.64063756278519" lon="9.422024146307644"><ele>322.0</ele><time>2026-04-28T13:35:26.872Z</time></trkpt><trkpt lat="39.640693426498565" lon="9.421963296673823"><ele>322.0</ele><time>2026-04-28T13:35:27.872Z</time></trkpt><trkpt lat="39.64079846027932" lon="9.4218727838078"><ele>322.0</ele><time>2026-04-28T13:35:29.872Z</time></trkpt><trkpt lat="39.64090125971395" lon="9.421842029768726"><ele>322.0</ele><time>2026-04-28T13:35:31.872Z</time></trkpt><trkpt lat="39.64097164459244" lon="9.421845594857409"><ele>322.0</ele><time>2026-04-28T13:35:32.872Z</time></trkpt><trkpt lat="39.64104907677516" lon="9.421853642796789"><ele>322.0</ele><time>2026-04-28T13:35:33.872Z</time></trkpt><trkpt lat="39.64111911069869" lon="9.421854203361574"><ele>322.0</ele><time>2026-04-28T13:35:34.872Z</time></trkpt><trkpt lat="39.64118595991151" lon="9.421873720885602"><ele>322.0</ele><time>2026-04-28T13:35:35.872Z</time></trkpt><trkpt lat="39.64124562246091" lon="9.421921361464767"><ele>322.0</ele><time>2026-04-28T13:35:36.872Z</time></trkpt><trkpt lat="39.64128732848377" lon="9.421984654920786"><ele>322.0</ele><time>2026-04-28T13:35:37.872Z</time></trkpt><trkpt lat="39.64132771464014" lon="9.422065689758794"><ele>322.0</ele><time>2026-04-28T13:35:38.872Z</time></trkpt><trkpt lat="39.64135952639162" lon="9.422162507024776"><ele>322.0</ele><time>2026-04-28T13:35:39.872Z</time></trkpt><trkpt lat="39.64140089364085" lon="9.422242609342797"><ele>323.16666666666663</ele><time>2026-04-28T13:35:40.872Z</time></trkpt><trkpt lat="39.64147166134843" lon="9.422280492003019"><ele>324.3333333333333</ele><time>2026-04-28T13:35:42.872Z</time></trkpt><trkpt lat="39.6415340843462" lon="9.42219962088842"><ele>325.5</ele><time>2026-04-28T13:35:44.872Z</time></trkpt><trkpt lat="39.64160001900659" lon="9.422131307326538"><ele>326.6666666666667</ele><time>2026-04-28T13:35:45.872Z</time></trkpt><trkpt lat="39.64168513504109" lon="9.422067293845076"><ele>327.83333333333337</ele><time>2026-04-28T13:35:46.872Z</time></trkpt><trkpt lat="39.64176743773619" lon="9.422014509496394"><ele>329.0</ele><time>2026-04-28T13:35:47.872Z</time></trkpt><trkpt lat="39.641855456188296" lon="9.421979184919145"><ele>329.0</ele><time>2026-04-28T13:35:48.872Z</time></trkpt><trkpt lat="39.64194536873148" lon="9.421956029426283"><ele>329.0</ele><time>2026-04-28T13:35:49.872Z</time></trkpt><trkpt lat="39.64202230391722" lon="9.421927979591779"><ele>329.0</ele><time>2026-04-28T13:35:50.872Z</time></trkpt><trkpt lat="39.64208662881332" lon="9.421914958771518"><ele>329.0</ele><time>2026-04-28T13:35:51.872Z</time></trkpt><trkpt lat="39.64215653346035" lon="9.421932644570537"><ele>329.0</ele><time>2026-04-28T13:35:52.872Z</time></trkpt><trkpt lat="39.64223024785373" lon="9.421978540095088"><ele>329.0</ele><time>2026-04-28T13:35:53.872Z</time></trkpt><trkpt lat="39.6423224168485" lon="9.422045741217692"><ele>329.25</ele><time>2026-04-28T13:35:54.872Z</time></trkpt><trkpt lat="39.6424254078278" lon="9.422133417940708"><ele>329.5</ele><time>2026-04-28T13:35:55.872Z</time></trkpt><trkpt lat="39.64252844420351" lon="9.422227644387101"><ele>329.75</ele><time>2026-04-28T13:35:56.872Z</time></trkpt><trkpt lat="39.64263040110299" lon="9.422320660553629"><ele>330.0</ele><time>2026-04-28T13:35:57.872Z</time></trkpt><trkpt lat="39.6427145818797" lon="9.422421876849535"><ele>331.0</ele><time>2026-04-28T13:35:58.872Z</time></trkpt><trkpt lat="39.64277355562371" lon="9.422521858862098"><ele>332.0</ele><time>2026-04-28T13:35:59.872Z</time></trkpt><trkpt lat="39.64282137748191" lon="9.422607395230242"><ele>333.0</ele><time>2026-04-28T13:36:00.872Z</time></trkpt><trkpt lat="39.642851548317125" lon="9.422692463000583"><ele>334.0</ele><time>2026-04-28T13:36:01.872Z</time></trkpt><trkpt lat="39.64288792751737" lon="9.422792272681772"><ele>335.0</ele><time>2026-04-28T13:36:02.872Z</time></trkpt><trkpt lat="39.64295150771185" lon="9.42288361795247"><ele>336.0</ele><time>2026-04-28T13:36:03.872Z</time></trkpt><trkpt lat="39.64301674735205" lon="9.422961337458668"><ele>337.6</ele><time>2026-04-28T13:36:04.872Z</time></trkpt><trkpt lat="39.64309425445666" lon="9.423046758275339"><ele>339.20000000000005</ele><time>2026-04-28T13:36:05.872Z</time></trkpt><trkpt lat="39.64317083679154" lon="9.423131475448766"><ele>340.79999999999995</ele><time>2026-04-28T13:36:06.872Z</time></trkpt><trkpt lat="39.64324091833529" lon="9.423219549270481"><ele>342.4</ele><time>2026-04-28T13:36:07.872Z</time></trkpt><trkpt lat="39.643283845713114" lon="9.423313982436083"><ele>344.0</ele><time>2026-04-28T13:36:08.872Z</time></trkpt><trkpt lat="39.64331279444924" lon="9.423416464253922"><ele>344.0</ele><time>2026-04-28T13:36:09.872Z</time></trkpt><trkpt lat="39.64331862762926" lon="9.423522713829868"><ele>344.0</ele><time>2026-04-28T13:36:10.872Z</time></trkpt><trkpt lat="39.643306799210656" lon="9.42365070569062"><ele>344.0</ele><time>2026-04-28T13:36:11.872Z</time></trkpt><trkpt lat="39.64329439287463" lon="9.423794200834731"><ele>344.0</ele><time>2026-04-28T13:36:12.872Z</time></trkpt><trkpt lat="39.64327981075112" lon="9.423931556578728"><ele>344.0</ele><time>2026-04-28T13:36:13.872Z</time></trkpt><trkpt lat="39.643269634557726" lon="9.424058569004252"><ele>344.33333333333337</ele><time>2026-04-28T13:36:14.872Z</time></trkpt><trkpt lat="39.64325722388627" lon="9.42416073738651"><ele>344.6666666666667</ele><time>2026-04-28T13:36:15.873Z</time></trkpt><trkpt lat="39.643252819302916" lon="9.424248399642153"><ele>345.0</ele><time>2026-04-28T13:36:16.873Z</time></trkpt><trkpt lat="39.64327643847861" lon="9.424346425633658"><ele>345.3333333333333</ele><time>2026-04-28T13:36:18.873Z</time></trkpt><trkpt lat="39.64334943217256" lon="9.424457200424516"><ele>345.66666666666663</ele><time>2026-04-28T13:36:20.873Z</time></trkpt><trkpt lat="39.64339519338554" lon="9.424525008599025"><ele>346.0</ele><time>2026-04-28T13:36:21.873Z</time></trkpt><trkpt lat="39.64342843352589" lon="9.424596873468564"><ele>346.4</ele><time>2026-04-28T13:36:22.873Z</time></trkpt><trkpt lat="39.64343450311104" lon="9.424696222215276"><ele>346.8</ele><time>2026-04-28T13:36:23.873Z</time></trkpt><trkpt lat="39.64341804614425" lon="9.424792067472584"><ele>347.2</ele><time>2026-04-28T13:36:24.873Z</time></trkpt><trkpt lat="39.643374098773926" lon="9.424914689881088"><ele>347.59999999999997</ele><time>2026-04-28T13:36:26.873Z</time></trkpt><trkpt lat="39.64343094670338" lon="9.425000448508479"><ele>348.0</ele><time>2026-04-28T13:36:30.873Z</time></trkpt><trkpt lat="39.64355921094768" lon="9.424969013659585"><ele>345.0</ele><time>2026-04-28T13:36:32.873Z</time></trkpt><trkpt lat="39.64363598187715" lon="9.424937170879385"><ele>342.0</ele><time>2026-04-28T13:36:33.873Z</time></trkpt><trkpt lat="39.643771073493006" lon="9.424930986133647"><ele>339.0</ele><time>2026-04-28T13:36:35.873Z</time></trkpt><trkpt lat="39.64384844065752" lon="9.424945316131131"><ele>336.0</ele><time>2026-04-28T13:36:36.873Z</time></trkpt><trkpt lat="39.64392501517537" lon="9.424959398320814"><ele>333.0</ele><time>2026-04-28T13:36:37.873Z</time></trkpt><trkpt lat="39.64404738793289" lon="9.424919698889997"><ele>333.0</ele><time>2026-04-28T13:36:39.873Z</time></trkpt><trkpt lat="39.64411648035626" lon="9.424893104327339"><ele>333.0</ele><time>2026-04-28T13:36:40.873Z</time></trkpt><trkpt lat="39.644227772369916" lon="9.424866803205617"><ele>333.0</ele><time>2026-04-28T13:36:42.873Z</time></trkpt><trkpt lat="39.6443593733432" lon="9.42490149955317"><ele>333.0</ele><time>2026-04-28T13:36:44.873Z</time></trkpt><trkpt lat="39.644433591130046" lon="9.424943995420273"><ele>333.0</ele><time>2026-04-28T13:36:45.873Z</time></trkpt><trkpt lat="39.6445467237524" lon="9.424974380682649"><ele>331.4</ele><time>2026-04-28T13:36:47.873Z</time></trkpt><trkpt lat="39.64467107670374" lon="9.424921576546279"><ele>329.79999999999995</ele><time>2026-04-28T13:36:49.873Z</time></trkpt><trkpt lat="39.64475080122916" lon="9.424867667699576"><ele>328.2</ele><time>2026-04-28T13:36:50.873Z</time></trkpt><trkpt lat="39.64481653114064" lon="9.424836239656077"><ele>326.6</ele><time>2026-04-28T13:36:51.873Z</time></trkpt><trkpt lat="39.644913715195834" lon="9.424831540917904"><ele>325.0</ele><time>2026-04-28T13:36:53.873Z</time></trkpt><trkpt lat="39.64502986071127" lon="9.424909103089425"><ele>325.0</ele><time>2026-04-28T13:36:55.873Z</time></trkpt><trkpt lat="39.645107664552164" lon="9.424952435088612"><ele>325.0</ele><time>2026-04-28T13:36:56.873Z</time></trkpt><trkpt lat="39.645189105964675" lon="9.42498853185306"><ele>325.0</ele><time>2026-04-28T13:36:57.873Z</time></trkpt><trkpt lat="39.645267996121596" lon="9.425022262711908"><ele>325.0</ele><time>2026-04-28T13:36:58.873Z</time></trkpt><trkpt lat="39.64534065399483" lon="9.425059024305003"><ele>325.0</ele><time>2026-04-28T13:36:59.873Z</time></trkpt><trkpt lat="39.64541741761147" lon="9.42509435558959"><ele>325.0</ele><time>2026-04-28T13:37:00.873Z</time></trkpt><trkpt lat="39.64548745112368" lon="9.425139737767624"><ele>322.6</ele><time>2026-04-28T13:37:01.873Z</time></trkpt><trkpt lat="39.645559331135615" lon="9.425237437902087"><ele>320.2</ele><time>2026-04-28T13:37:03.873Z</time></trkpt><trkpt lat="39.6455509800361" lon="9.425398792808933"><ele>317.8</ele><time>2026-04-28T13:37:05.873Z</time></trkpt><trkpt lat="39.645526794851236" lon="9.425481043709967"><ele>315.4</ele><time>2026-04-28T13:37:06.873Z</time></trkpt><trkpt lat="39.645541616625884" lon="9.425637593750205"><ele>313.0</ele><time>2026-04-28T13:37:08.873Z</time></trkpt><trkpt lat="39.64556163788727" lon="9.425722067780873"><ele>313.0</ele><time>2026-04-28T13:37:09.873Z</time></trkpt><trkpt lat="39.64556868882013" lon="9.425803993570195"><ele>313.0</ele><time>2026-04-28T13:37:10.873Z</time></trkpt><trkpt lat="39.64554946987259" lon="9.42588884439745"><ele>313.0</ele><time>2026-04-28T13:37:11.873Z</time></trkpt><trkpt lat="39.645531869940534" lon="9.425973099337194"><ele>313.0</ele><time>2026-04-28T13:37:12.873Z</time></trkpt><trkpt lat="39.64549284019103" lon="9.426112663193566"><ele>313.0</ele><time>2026-04-28T13:37:14.873Z</time></trkpt><trkpt lat="39.6455054133818" lon="9.426224464481383"><ele>313.0</ele><time>2026-04-28T13:37:17.873Z</time></trkpt><trkpt lat="39.645629568211625" lon="9.426263391445847"><ele>313.0</ele><time>2026-04-28T13:37:19.873Z</time></trkpt><trkpt lat="39.645703684460294" lon="9.42628378588984"><ele>313.0</ele><time>2026-04-28T13:37:20.873Z</time></trkpt><trkpt lat="39.645794525848814" lon="9.42633000954739"><ele>313.0</ele><time>2026-04-28T13:37:21.873Z</time></trkpt><trkpt lat="39.64588162015979" lon="9.426372947667485"><ele>313.0</ele><time>2026-04-28T13:37:22.871Z</time></trkpt><trkpt lat="39.645969647743435" lon="9.426404538109026"><ele>313.0</ele><time>2026-04-28T13:37:23.871Z</time></trkpt><trkpt lat="39.646055847205766" lon="9.426426598320752"><ele>313.0</ele><time>2026-04-28T13:37:24.871Z</time></trkpt><trkpt lat="39.64613501811084" lon="9.426432479688483"><ele>313.6</ele><time>2026-04-28T13:37:25.871Z</time></trkpt><trkpt lat="39.6462180642803" lon="9.426426640218134"><ele>314.20000000000005</ele><time>2026-04-28T13:37:26.871Z</time></trkpt><trkpt lat="39.6463146251083" lon="9.426413874586714"><ele>314.8</ele><time>2026-04-28T13:37:27.871Z</time></trkpt><trkpt lat="39.64642101397422" lon="9.426402294453577"><ele>315.40000000000003</ele><time>2026-04-28T13:37:28.871Z</time></trkpt><trkpt lat="39.64651968842575" lon="9.426380620074648"><ele>316.0</ele><time>2026-04-28T13:37:29.871Z</time></trkpt><trkpt lat="39.646608533716325" lon="9.42636384213485"><ele>316.0</ele><time>2026-04-28T13:37:30.871Z</time></trkpt><trkpt lat="39.64668356070854" lon="9.42632358356001"><ele>316.0</ele><time>2026-04-28T13:37:31.87Z</time></trkpt><trkpt lat="39.64676732991028" lon="9.426287997384676"><ele>316.0</ele><time>2026-04-28T13:37:32.871Z</time></trkpt><trkpt lat="39.646833584010295" lon="9.426243146691144"><ele>316.0</ele><time>2026-04-28T13:37:33.871Z</time></trkpt><trkpt lat="39.646910781752325" lon="9.426215324514585"><ele>316.0</ele><time>2026-04-28T13:37:34.87Z</time></trkpt><trkpt lat="39.646975847617014" lon="9.426189250893346"><ele>316.0</ele><time>2026-04-28T13:37:35.87Z</time></trkpt><trkpt lat="39.64702879784862" lon="9.426135229603906"><ele>312.2</ele><time>2026-04-28T13:37:37.87Z</time></trkpt><trkpt lat="39.647000776169584" lon="9.426013953420544"><ele>308.40000000000003</ele><time>2026-04-28T13:37:39.87Z</time></trkpt><trkpt lat="39.64690685580903" lon="9.42593043446044"><ele>304.6</ele><time>2026-04-28T13:37:41.87Z</time></trkpt><trkpt lat="39.64681142950612" lon="9.425942073237193"><ele>300.8</ele><time>2026-04-28T13:37:43.87Z</time></trkpt><trkpt lat="39.646836268044076" lon="9.425831256585772"><ele>297.0</ele><time>2026-04-28T13:37:45.87Z</time></trkpt><trkpt lat="39.646844702453635" lon="9.425737924988612"><ele>297.0</ele><time>2026-04-28T13:37:46.87Z</time></trkpt><trkpt lat="39.64687377757861" lon="9.42561758230624"><ele>297.0</ele><time>2026-04-28T13:37:47.87Z</time></trkpt><trkpt lat="39.64688551143883" lon="9.425518070615734"><ele>297.0</ele><time>2026-04-28T13:37:48.87Z</time></trkpt><trkpt lat="39.646869743371234" lon="9.425383353922282"><ele>297.0</ele><time>2026-04-28T13:37:50.87Z</time></trkpt><trkpt lat="39.646807926105716" lon="9.425271477614531"><ele>297.0</ele><time>2026-04-28T13:37:52.87Z</time></trkpt><trkpt lat="39.646753330647215" lon="9.425214460942112"><ele>295.8333333333333</ele><time>2026-04-28T13:37:53.87Z</time></trkpt><trkpt lat="39.646701699998765" lon="9.42515385363935"><ele>294.6666666666667</ele><time>2026-04-28T13:37:54.87Z</time></trkpt><trkpt lat="39.646639820548664" lon="9.425090782513431"><ele>293.5</ele><time>2026-04-28T13:37:55.87Z</time></trkpt><trkpt lat="39.64653349792957" lon="9.425031052540795"><ele>292.33333333333337</ele><time>2026-04-28T13:37:57.87Z</time></trkpt><trkpt lat="39.64646533899059" lon="9.425011334157325"><ele>291.1666666666667</ele><time>2026-04-28T13:37:59.87Z</time></trkpt><trkpt lat="39.64638984309371" lon="9.424962913545544"><ele>290.0</ele><time>2026-04-28T13:38:02.87Z</time></trkpt><trkpt lat="39.64632883322571" lon="9.42492335036312"><ele>290.0</ele><time>2026-04-28T13:38:04.87Z</time></trkpt><trkpt lat="39.64626322875563" lon="9.424895230732586"><ele>290.0</ele><time>2026-04-28T13:38:06.87Z</time></trkpt><trkpt lat="39.64621672661526" lon="9.424828714292113"><ele>290.0</ele><time>2026-04-28T13:38:08.87Z</time></trkpt><trkpt lat="39.64617359863671" lon="9.424730314137596"><ele>290.0</ele><time>2026-04-28T13:38:10.87Z</time></trkpt><trkpt lat="39.646137630077426" lon="9.424633059695543"><ele>290.0</ele><time>2026-04-28T13:38:12.87Z</time></trkpt><trkpt lat="39.646093099229084" lon="9.424544282721863"><ele>290.0</ele><time>2026-04-28T13:38:14.87Z</time></trkpt><trkpt lat="39.646017152934725" lon="9.42446958106775"><ele>290.33333333333337</ele><time>2026-04-28T13:38:17.87Z</time></trkpt><trkpt lat="39.64598948368323" lon="9.424378398192555"><ele>290.6666666666667</ele><time>2026-04-28T13:38:20.87Z</time></trkpt><trkpt lat="39.64604863528609" lon="9.424334914100738"><ele>291.0</ele><time>2026-04-28T13:38:22.87Z</time></trkpt><trkpt lat="39.64613323507825" lon="9.424361810242482"><ele>291.3333333333333</ele><time>2026-04-28T13:38:24.87Z</time></trkpt><trkpt lat="39.646240891423815" lon="9.424360483023731"><ele>291.66666666666663</ele><time>2026-04-28T13:38:26.87Z</time></trkpt><trkpt lat="39.6463119752841" lon="9.424330952770783"><ele>292.0</ele><time>2026-04-28T13:38:27.87Z</time></trkpt><trkpt lat="39.64639146704357" lon="9.424297730105353"><ele>292.0</ele><time>2026-04-28T13:38:28.87Z</time></trkpt><trkpt lat="39.64646000030128" lon="9.424251400511887"><ele>292.0</ele><time>2026-04-28T13:38:29.87Z</time></trkpt><trkpt lat="39.646518776842136" lon="9.42420263450817"><ele>292.0</ele><time>2026-04-28T13:38:30.87Z</time></trkpt><trkpt lat="39.646577320102665" lon="9.424160376207823"><ele>292.0</ele><time>2026-04-28T13:38:31.87Z</time></trkpt><trkpt lat="39.64663926991353" lon="9.424119103979754"><ele>292.0</ele><time>2026-04-28T13:38:32.87Z</time></trkpt><trkpt lat="39.64675615313226" lon="9.424050156232322"><ele>292.0</ele><time>2026-04-28T13:38:34.87Z</time></trkpt><trkpt lat="39.64686720686202" lon="9.423980416657034"><ele>292.0</ele><time>2026-04-28T13:38:36.87Z</time></trkpt><trkpt lat="39.64693719459579" lon="9.42393126613909"><ele>292.0</ele><time>2026-04-28T13:38:37.87Z</time></trkpt><trkpt lat="39.64699590901152" lon="9.423896233276869"><ele>292.0</ele><time>2026-04-28T13:38:38.87Z</time></trkpt><trkpt lat="39.6470653531075" lon="9.423850967370388"><ele>292.0</ele><time>2026-04-28T13:38:39.87Z</time></trkpt><trkpt lat="39.64712380422445" lon="9.423811617907269"><ele>292.0</ele><time>2026-04-28T13:38:40.87Z</time></trkpt><trkpt lat="39.64718539979663" lon="9.423766815635426"><ele>292.0</ele><time>2026-04-28T13:38:41.87Z</time></trkpt><trkpt lat="39.64724800213304" lon="9.423716723785565"><ele>292.0</ele><time>2026-04-28T13:38:42.87Z</time></trkpt><trkpt lat="39.64731004828155" lon="9.423663644557216"><ele>296.66666666666663</ele><time>2026-04-28T13:38:43.87Z</time></trkpt><trkpt lat="39.64736623420882" lon="9.42361793100493"><ele>301.3333333333333</ele><time>2026-04-28T13:38:44.87Z</time></trkpt><trkpt lat="39.647428503254766" lon="9.423574234634414"><ele>306.0</ele><time>2026-04-28T13:38:45.87Z</time></trkpt><trkpt lat="39.64751564557368" lon="9.423506624599339"><ele>310.6666666666667</ele><time>2026-04-28T13:38:47.87Z</time></trkpt><trkpt lat="39.6475118395124" lon="9.423400667063845"><ele>315.33333333333337</ele><time>2026-04-28T13:38:50.87Z</time></trkpt><trkpt lat="39.647460514928014" lon="9.423337775494714"><ele>320.0</ele><time>2026-04-28T13:38:51.871Z</time></trkpt><trkpt lat="39.647397137822075" lon="9.423289558280517"><ele>320.0</ele><time>2026-04-28T13:38:52.871Z</time></trkpt><trkpt lat="39.64733341748909" lon="9.423243156642247"><ele>320.0</ele><time>2026-04-28T13:38:53.871Z</time></trkpt><trkpt lat="39.64728202110906" lon="9.423178879155872"><ele>320.0</ele><time>2026-04-28T13:38:54.871Z</time></trkpt><trkpt lat="39.64726587246779" lon="9.423095091816283"><ele>320.0</ele><time>2026-04-28T13:38:56.871Z</time></trkpt><trkpt lat="39.647344224109375" lon="9.423056601101354"><ele>320.0</ele><time>2026-04-28T13:38:58.871Z</time></trkpt><trkpt lat="39.64745100345968" lon="9.423102712727221"><ele>320.0</ele><time>2026-04-28T13:39:00.871Z</time></trkpt><trkpt lat="39.647551825854535" lon="9.42311281689884"><ele>320.0</ele><time>2026-04-28T13:39:02.871Z</time></trkpt><trkpt lat="39.647648921602055" lon="9.423037866734434"><ele>320.0</ele><time>2026-04-28T13:39:04.871Z</time></trkpt><trkpt lat="39.64770768787583" lon="9.422999543947014"><ele>320.0</ele><time>2026-04-28T13:39:05.871Z</time></trkpt><trkpt lat="39.64777294573476" lon="9.422999510361665"><ele>320.0</ele><time>2026-04-28T13:39:06.871Z</time></trkpt><trkpt lat="39.64783797696598" lon="9.423036678571368"><ele>320.0</ele><time>2026-04-28T13:39:07.871Z</time></trkpt><trkpt lat="39.64790632223084" lon="9.423085789131745"><ele>320.0</ele><time>2026-04-28T13:39:08.871Z</time></trkpt><trkpt lat="39.647973945988475" lon="9.423128316854134"><ele>325.0</ele><time>2026-04-28T13:39:09.871Z</time></trkpt><trkpt lat="39.64803016543617" lon="9.423172042365026"><ele>330.0</ele><time>2026-04-28T13:39:10.871Z</time></trkpt><trkpt lat="39.648093013907165" lon="9.423122616408392"><ele>335.0</ele><time>2026-04-28T13:39:14.871Z</time></trkpt><trkpt lat="39.64801923119598" lon="9.423014814888676"><ele>340.0</ele><time>2026-04-28T13:39:16.871Z</time></trkpt><trkpt lat="39.64795550642795" lon="9.42296053628576"><ele>345.0</ele><time>2026-04-28T13:39:17.871Z</time></trkpt><trkpt lat="39.647871815594556" lon="9.422900195533899"><ele>350.0</ele><time>2026-04-28T13:39:18.871Z</time></trkpt><trkpt lat="39.64781510750084" lon="9.422822716740122"><ele>349.6666666666667</ele><time>2026-04-28T13:39:19.871Z</time></trkpt><trkpt lat="39.6477528734479" lon="9.422757904496498"><ele>349.33333333333337</ele><time>2026-04-28T13:39:20.871Z</time></trkpt><trkpt lat="39.647688963883525" lon="9.422704376687308"><ele>349.0</ele><time>2026-04-28T13:39:21.871Z</time></trkpt><trkpt lat="39.64761339869458" lon="9.422664413425494"><ele>348.6666666666667</ele><time>2026-04-28T13:39:22.871Z</time></trkpt><trkpt lat="39.6475303514234" lon="9.42262704715817"><ele>348.3333333333333</ele><time>2026-04-28T13:39:23.871Z</time></trkpt><trkpt lat="39.64745757511541" lon="9.422571156308743"><ele>348.0</ele><time>2026-04-28T13:39:24.871Z</time></trkpt><trkpt lat="39.64738656826948" lon="9.422488681238068"><ele>348.0</ele><time>2026-04-28T13:39:25.871Z</time></trkpt><trkpt lat="39.64731790554598" lon="9.422407308613362"><ele>348.0</ele><time>2026-04-28T13:39:26.871Z</time></trkpt><trkpt lat="39.64725083890352" lon="9.42233868526665"><ele>348.0</ele><time>2026-04-28T13:39:27.871Z</time></trkpt><trkpt lat="39.64718177108484" lon="9.422276784426822"><ele>348.0</ele><time>2026-04-28T13:39:28.869Z</time></trkpt><trkpt lat="39.64711546643806" lon="9.422228246522975"><ele>348.0</ele><time>2026-04-28T13:39:29.869Z</time></trkpt><trkpt lat="39.64706367989338" lon="9.42217620450454"><ele>348.0</ele><time>2026-04-28T13:39:30.869Z</time></trkpt><trkpt lat="39.64704443363779" lon="9.422021646650332"><ele>350.8333333333333</ele><time>2026-04-28T13:39:32.869Z</time></trkpt><trkpt lat="39.64705388981053" lon="9.421925683103783"><ele>353.6666666666667</ele><time>2026-04-28T13:39:33.869Z</time></trkpt><trkpt lat="39.647077878979864" lon="9.421826882910226"><ele>356.5</ele><time>2026-04-28T13:39:34.869Z</time></trkpt><trkpt lat="39.647097513946434" lon="9.42172857313026"><ele>359.33333333333337</ele><time>2026-04-28T13:39:35.869Z</time></trkpt><trkpt lat="39.64712655630749" lon="9.421627204828816"><ele>362.1666666666667</ele><time>2026-04-28T13:39:36.869Z</time></trkpt><trkpt lat="39.64717335389428" lon="9.421527652032301"><ele>365.0</ele><time>2026-04-28T13:39:37.869Z</time></trkpt><trkpt lat="39.64723218606206" lon="9.421433448984256"><ele>365.0</ele><time>2026-04-28T13:39:38.869Z</time></trkpt><trkpt lat="39.64728140980846" lon="9.421348789188825"><ele>365.0</ele><time>2026-04-28T13:39:39.869Z</time></trkpt><trkpt lat="39.64731173858563" lon="9.421272029751469"><ele>365.0</ele><time>2026-04-28T13:39:40.869Z</time></trkpt><trkpt lat="39.64730043784447" lon="9.421119156795225"><ele>365.0</ele><time>2026-04-28T13:39:42.869Z</time></trkpt><trkpt lat="39.64728362037843" lon="9.421019455953946"><ele>365.0</ele><time>2026-04-28T13:39:43.869Z</time></trkpt><trkpt lat="39.6472511884284" lon="9.420900359581683"><ele>365.0</ele><time>2026-04-28T13:39:44.869Z</time></trkpt><trkpt lat="39.647220328391214" lon="9.420776110539487"><ele>366.8</ele><time>2026-04-28T13:39:45.869Z</time></trkpt><trkpt lat="39.647200994826065" lon="9.420655603783162"><ele>368.6</ele><time>2026-04-28T13:39:46.869Z</time></trkpt><trkpt lat="39.6471885971066" lon="9.420533161131011"><ele>370.4</ele><time>2026-04-28T13:39:47.869Z</time></trkpt><trkpt lat="39.647185848215244" lon="9.420411704310022"><ele>372.2</ele><time>2026-04-28T13:39:48.87Z</time></trkpt><trkpt lat="39.64719109072355" lon="9.420296599068363"><ele>374.0</ele><time>2026-04-28T13:39:49.87Z</time></trkpt><trkpt lat="39.64721560089457" lon="9.420175683322231"><ele>375.1666666666667</ele><time>2026-04-28T13:39:50.87Z</time></trkpt><trkpt lat="39.647256316174364" lon="9.420064645896913"><ele>376.33333333333337</ele><time>2026-04-28T13:39:51.87Z</time></trkpt><trkpt lat="39.6472865855219" lon="9.419963433746384"><ele>377.5</ele><time>2026-04-28T13:39:52.87Z</time></trkpt><trkpt lat="39.6472699767356" lon="9.419857478032934"><ele>378.6666666666667</ele><time>2026-04-28T13:39:54.87Z</time></trkpt><trkpt lat="39.647179495123964" lon="9.419845257745003"><ele>379.8333333333333</ele><time>2026-04-28T13:39:56.87Z</time></trkpt><trkpt lat="39.64711746282331" lon="9.41981905836587"><ele>381.0</ele><time>2026-04-28T13:39:57.87Z</time></trkpt><trkpt lat="39.647083049582285" lon="9.419721459468827"><ele>381.0</ele><time>2026-04-28T13:39:59.87Z</time></trkpt><trkpt lat="39.64713701352762" lon="9.419654677978452"><ele>381.0</ele><time>2026-04-28T13:40:01.87Z</time></trkpt><trkpt lat="39.647249049525996" lon="9.419537906771327"><ele>381.0</ele><time>2026-04-28T13:40:03.87Z</time></trkpt><trkpt lat="39.6473095004217" lon="9.41947519827895"><ele>381.0</ele><time>2026-04-28T13:40:04.87Z</time></trkpt><trkpt lat="39.647375540589074" lon="9.419441352378279"><ele>381.0</ele><time>2026-04-28T13:40:05.87Z</time></trkpt><trkpt lat="39.64745257217238" lon="9.419436266341823"><ele>381.0</ele><time>2026-04-28T13:40:06.87Z</time></trkpt><trkpt lat="39.64753420426357" lon="9.419468419456301"><ele>380.0</ele><time>2026-04-28T13:40:07.87Z</time></trkpt><trkpt lat="39.64761300026889" lon="9.419518327023592"><ele>379.0</ele><time>2026-04-28T13:40:08.87Z</time></trkpt><trkpt lat="39.64769130028996" lon="9.419556401767686"><ele>378.0</ele><time>2026-04-28T13:40:09.87Z</time></trkpt><trkpt lat="39.647777835993814" lon="9.419579811891445"><ele>377.0</ele><time>2026-04-28T13:40:10.87Z</time></trkpt><trkpt lat="39.64787977652695" lon="9.419587296661517"><ele>376.0</ele><time>2026-04-28T13:40:11.87Z</time></trkpt><trkpt lat="39.64798184578363" lon="9.419586474213514"><ele>374.8</ele><time>2026-04-28T13:40:12.87Z</time></trkpt><trkpt lat="39.648090301418954" lon="9.419588117031441"><ele>373.6</ele><time>2026-04-28T13:40:13.87Z</time></trkpt><trkpt lat="39.64819613379867" lon="9.419604672094467"><ele>372.4</ele><time>2026-04-28T13:40:14.87Z</time></trkpt><trkpt lat="39.64830485258033" lon="9.41963102917689"><ele>371.2</ele><time>2026-04-28T13:40:15.87Z</time></trkpt><trkpt lat="39.648407675960605" lon="9.419664125285491"><ele>370.0</ele><time>2026-04-28T13:40:16.87Z</time></trkpt><trkpt lat="39.64850580137752" lon="9.419709342714494"><ele>373.16666666666663</ele><time>2026-04-28T13:40:17.87Z</time></trkpt><trkpt lat="39.64860858964276" lon="9.419756245952698"><ele>376.3333333333333</ele><time>2026-04-28T13:40:18.87Z</time></trkpt><trkpt lat="39.64870559350082" lon="9.419791026821716"><ele>379.5</ele><time>2026-04-28T13:40:19.87Z</time></trkpt><trkpt lat="39.648794258399356" lon="9.419815661750338"><ele>382.66666666666663</ele><time>2026-04-28T13:40:20.87Z</time></trkpt><trkpt lat="39.64886102224919" lon="9.419836185193482"><ele>385.8333333333333</ele><time>2026-04-28T13:40:21.87Z</time></trkpt><trkpt lat="39.64890983438555" lon="9.419895918907722"><ele>389.0</ele><time>2026-04-28T13:40:22.87Z</time></trkpt><trkpt lat="39.64892820950253" lon="9.419976544384403"><ele>388.99999999999994</ele><time>2026-04-28T13:40:23.87Z</time></trkpt><trkpt lat="39.648968059420184" lon="9.420044709084195"><ele>389.0</ele><time>2026-04-28T13:40:24.87Z</time></trkpt><trkpt lat="39.64900258349271" lon="9.420125195546103"><ele>389.0</ele><time>2026-04-28T13:40:25.87Z</time></trkpt><trkpt lat="39.64899589859675" lon="9.42022133105347"><ele>389.0</ele><time>2026-04-28T13:40:27.87Z</time></trkpt><trkpt lat="39.64889830145726" lon="9.42020270098499"><ele>388.99999999999994</ele><time>2026-04-28T13:40:29.87Z</time></trkpt><trkpt lat="39.64884947433037" lon="9.420147787231407"><ele>389.0</ele><time>2026-04-28T13:40:30.87Z</time></trkpt><trkpt lat="39.64877690775755" lon="9.420096206246361"><ele>388.99999999999994</ele><time>2026-04-28T13:40:31.87Z</time></trkpt><trkpt lat="39.64869963131563" lon="9.420058318280878"><ele>389.0</ele><time>2026-04-28T13:40:32.87Z</time></trkpt><trkpt lat="39.648637490251794" lon="9.420040382140911"><ele>389.0</ele><time>2026-04-28T13:40:33.87Z</time></trkpt><trkpt lat="39.64859556275752" lon="9.420119137242676"><ele>389.0</ele><time>2026-04-28T13:40:36.87Z</time></trkpt><trkpt lat="39.64863840892835" lon="9.420252325173982"><ele>388.99999999999994</ele><time>2026-04-28T13:40:38.87Z</time></trkpt><trkpt lat="39.648689848090775" lon="9.420333391571335"><ele>389.0</ele><time>2026-04-28T13:40:39.87Z</time></trkpt><trkpt lat="39.64874354737158" lon="9.420407106094464"><ele>388.99999999999994</ele><time>2026-04-28T13:40:40.87Z</time></trkpt><trkpt lat="39.648800370654705" lon="9.420477049170977"><ele>389.0</ele><time>2026-04-28T13:40:41.87Z</time></trkpt><trkpt lat="39.6488653689771" lon="9.420560411209717"><ele>389.0</ele><time>2026-04-28T13:40:42.87Z</time></trkpt><trkpt lat="39.64892974063745" lon="9.420646773598655"><ele>389.0</ele><time>2026-04-28T13:40:43.87Z</time></trkpt><trkpt lat="39.64899488865213" lon="9.420728675818367"><ele>388.99999999999994</ele><time>2026-04-28T13:40:44.87Z</time></trkpt><trkpt lat="39.64906353292437" lon="9.420791220341357"><ele>389.0</ele><time>2026-04-28T13:40:45.87Z</time></trkpt><trkpt lat="39.649136260625895" lon="9.420848539034418"><ele>391.79999999999995</ele><time>2026-04-28T13:40:46.87Z</time></trkpt><trkpt lat="39.64922352362294" lon="9.420893016182296"><ele>394.59999999999997</ele><time>2026-04-28T13:40:47.87Z</time></trkpt><trkpt lat="39.64931276665782" lon="9.42093798621662"><ele>397.4</ele><time>2026-04-28T13:40:48.87Z</time></trkpt><trkpt lat="39.649410291647285" lon="9.420978686573765"><ele>400.2</ele><time>2026-04-28T13:40:49.87Z</time></trkpt><trkpt lat="39.64951801769496" lon="9.421016332339011"><ele>403.0</ele><time>2026-04-28T13:40:50.87Z</time></trkpt><trkpt lat="39.64962572289569" lon="9.421059273199674"><ele>403.0</ele><time>2026-04-28T13:40:51.87Z</time></trkpt><trkpt lat="39.64973511513266" lon="9.421117584167801"><ele>403.0</ele><time>2026-04-28T13:40:52.87Z</time></trkpt><trkpt lat="39.649841564752606" lon="9.421196572084872"><ele>403.0</ele><time>2026-04-28T13:40:53.87Z</time></trkpt><trkpt lat="39.64994164171776" lon="9.421286792075051"><ele>403.0</ele><time>2026-04-28T13:40:54.87Z</time></trkpt><trkpt lat="39.65004412744397" lon="9.42139000851189"><ele>409.5</ele><time>2026-04-28T13:40:55.87Z</time></trkpt><trkpt lat="39.65014361987447" lon="9.421494198010826"><ele>416.0</ele><time>2026-04-28T13:40:56.87Z</time></trkpt><trkpt lat="39.65024995781072" lon="9.421602432658974"><ele>422.5</ele><time>2026-04-28T13:40:57.87Z</time></trkpt><trkpt lat="39.65033663367493" lon="9.421705388697434"><ele>429.0</ele><time>2026-04-28T13:40:58.87Z</time></trkpt><trkpt lat="39.65042113374384" lon="9.421792382855145"><ele>429.8333333333333</ele><time>2026-04-28T13:40:59.87Z</time></trkpt><trkpt lat="39.650501191269555" lon="9.421847784411293"><ele>430.66666666666663</ele><time>2026-04-28T13:41:00.87Z</time></trkpt><trkpt lat="39.650575265014155" lon="9.421877860891756"><ele>431.5</ele><time>2026-04-28T13:41:01.87Z</time></trkpt><trkpt lat="39.65065345848894" lon="9.42190307060014"><ele>432.3333333333333</ele><time>2026-04-28T13:41:02.87Z</time></trkpt><trkpt lat="39.650721671394486" lon="9.421906526324975"><ele>433.16666666666663</ele><time>2026-04-28T13:41:03.87Z</time></trkpt><trkpt lat="39.650793821656144" lon="9.42190381689102"><ele>434.0</ele><time>2026-04-28T13:41:04.87Z</time></trkpt><trkpt lat="39.650869318707976" lon="9.421890527500173"><ele>434.0</ele><time>2026-04-28T13:41:05.87Z</time></trkpt><trkpt lat="39.650962881441565" lon="9.42190823827294"><ele>434.0</ele><time>2026-04-28T13:41:06.87Z</time></trkpt><trkpt lat="39.65106539456443" lon="9.421887240903379"><ele>434.0</ele><time>2026-04-28T13:41:07.87Z</time></trkpt><trkpt lat="39.65116693956295" lon="9.42189100723697"><ele>434.0</ele><time>2026-04-28T13:41:08.87Z</time></trkpt><trkpt lat="39.651267820819946" lon="9.421890475891788"><ele>434.0</ele><time>2026-04-28T13:41:09.87Z</time></trkpt><trkpt lat="39.65135985750628" lon="9.421873021127547"><ele>437.0</ele><time>2026-04-28T13:41:10.87Z</time></trkpt><trkpt lat="39.65145540700543" lon="9.421844481586996"><ele>440.0</ele><time>2026-04-28T13:41:11.87Z</time></trkpt><trkpt lat="39.65153809565323" lon="9.421819549690094"><ele>443.0</ele><time>2026-04-28T13:41:12.87Z</time></trkpt><trkpt lat="39.65159380510623" lon="9.421777661115584"><ele>446.0</ele><time>2026-04-28T13:41:13.87Z</time></trkpt><trkpt lat="39.65167062629156" lon="9.421645820646445"><ele>449.0</ele><time>2026-04-28T13:41:15.87Z</time></trkpt><trkpt lat="39.65176199497881" lon="9.421511603671902"><ele>448.99999999999994</ele><time>2026-04-28T13:41:17.871Z</time></trkpt><trkpt lat="39.65181928375225" lon="9.421442999752717"><ele>449.0</ele><time>2026-04-28T13:41:18.871Z</time></trkpt><trkpt lat="39.65187559160771" lon="9.421365787492643"><ele>449.0</ele><time>2026-04-28T13:41:19.871Z</time></trkpt><trkpt lat="39.65193172465709" lon="9.421290154277044"><ele>449.0</ele><time>2026-04-28T13:41:20.871Z</time></trkpt><trkpt lat="39.65200133392569" lon="9.421206727427002"><ele>448.99999999999994</ele><time>2026-04-28T13:41:21.871Z</time></trkpt><trkpt lat="39.65207935747957" lon="9.42114476801678"><ele>449.0</ele><time>2026-04-28T13:41:22.871Z</time></trkpt><trkpt lat="39.652163697445204" lon="9.421089315984863"><ele>450.16666666666663</ele><time>2026-04-28T13:41:23.871Z</time></trkpt><trkpt lat="39.65226032191707" lon="9.421041381158684"><ele>451.3333333333333</ele><time>2026-04-28T13:41:24.871Z</time></trkpt><trkpt lat="39.65235820851611" lon="9.42100696926052"><ele>452.5</ele><time>2026-04-28T13:41:25.871Z</time></trkpt><trkpt lat="39.652436546873965" lon="9.42097073333249"><ele>453.66666666666663</ele><time>2026-04-28T13:41:26.871Z</time></trkpt><trkpt lat="39.652503619311034" lon="9.420916912695981"><ele>454.8333333333333</ele><time>2026-04-28T13:41:27.871Z</time></trkpt><trkpt lat="39.65256002041274" lon="9.420850740777675"><ele>456.0</ele><time>2026-04-28T13:41:28.871Z</time></trkpt><trkpt lat="39.65261901627926" lon="9.420758917568355"><ele>456.0</ele><time>2026-04-28T13:41:29.871Z</time></trkpt><trkpt lat="39.652679964065065" lon="9.420656494903575"><ele>456.0</ele><time>2026-04-28T13:41:30.871Z</time></trkpt><trkpt lat="39.652772156978564" lon="9.420553981372072"><ele>456.0</ele><time>2026-04-28T13:41:31.871Z</time></trkpt><trkpt lat="39.65286419354605" lon="9.420460587007426"><ele>456.0</ele><time>2026-04-28T13:41:32.871Z</time></trkpt><trkpt lat="39.65296902254759" lon="9.420438311463235"><ele>456.0</ele><time>2026-04-28T13:41:33.871Z</time></trkpt><trkpt lat="39.65310010747656" lon="9.420392586216217"><ele>457.5</ele><time>2026-04-28T13:41:34.868Z</time></trkpt><trkpt lat="39.65322920984151" lon="9.420362589516227"><ele>459.0</ele><time>2026-04-28T13:41:35.868Z</time></trkpt><trkpt lat="39.653335301131364" lon="9.420361948420469"><ele>460.5</ele><time>2026-04-28T13:41:36.868Z</time></trkpt><trkpt lat="39.653172615601754" lon="9.420381756238893"><ele>462.0</ele><time>2026-04-28T13:41:37.868Z</time></trkpt><trkpt lat="39.65326441339813" lon="9.420421569129358"><ele>463.20000000000005</ele><time>2026-04-28T13:41:39.868Z</time></trkpt><trkpt lat="39.65326575328602" lon="9.420563860809075"><ele>464.40000000000003</ele><time>2026-04-28T13:41:41.868Z</time></trkpt><trkpt lat="39.65323610171047" lon="9.420661338250145"><ele>465.59999999999997</ele><time>2026-04-28T13:41:42.868Z</time></trkpt><trkpt lat="39.65321262713043" lon="9.420810956377023"><ele>466.79999999999995</ele><time>2026-04-28T13:41:43.868Z</time></trkpt><trkpt lat="39.653183614329656" lon="9.420990997304928"><ele>468.0</ele><time>2026-04-28T13:41:44.868Z</time></trkpt><trkpt lat="39.653150741827695" lon="9.421189078734177"><ele>470.25</ele><time>2026-04-28T13:41:45.868Z</time></trkpt><trkpt lat="39.65313321476498" lon="9.421393329414093"><ele>472.5</ele><time>2026-04-28T13:41:46.868Z</time></trkpt><trkpt lat="39.65309870609155" lon="9.421568483732495"><ele>474.75</ele><time>2026-04-28T13:41:47.868Z</time></trkpt><trkpt lat="39.653082973187374" lon="9.421695962095134"><ele>477.0</ele><time>2026-04-28T13:41:48.868Z</time></trkpt><trkpt lat="39.65310908189575" lon="9.421820070626076"><ele>477.0</ele><time>2026-04-28T13:41:50.868Z</time></trkpt><trkpt lat="39.65320813871574" lon="9.421858687685793"><ele>477.00000000000006</ele><time>2026-04-28T13:41:52.868Z</time></trkpt><trkpt lat="39.65328083027657" lon="9.421848187773557"><ele>477.00000000000006</ele><time>2026-04-28T13:41:53.868Z</time></trkpt><trkpt lat="39.65337477285072" lon="9.421825207346133"><ele>477.0</ele><time>2026-04-28T13:41:54.868Z</time></trkpt><trkpt lat="39.653478895209204" lon="9.421778533458834"><ele>477.0</ele><time>2026-04-28T13:41:55.868Z</time></trkpt><trkpt lat="39.653596910053174" lon="9.42173059409313"><ele>480.0</ele><time>2026-04-28T13:41:56.868Z</time></trkpt><trkpt lat="39.65372684153644" lon="9.421679805299759"><ele>483.0</ele><time>2026-04-28T13:41:57.868Z</time></trkpt><trkpt lat="39.65386485055785" lon="9.42164052946554"><ele>486.0</ele><time>2026-04-28T13:41:58.868Z</time></trkpt><trkpt lat="39.65401523326611" lon="9.421620097509825"><ele>489.0</ele><time>2026-04-28T13:41:59.868Z</time></trkpt><trkpt lat="39.65421145197878" lon="9.421573011094072"><ele>489.0</ele><time>2026-04-28T13:42:00.868Z</time></trkpt><trkpt lat="39.65437587150778" lon="9.421584629627377"><ele>489.0</ele><time>2026-04-28T13:42:01.868Z</time></trkpt><trkpt lat="39.654533972203176" lon="9.421585154974533"><ele>489.0</ele><time>2026-04-28T13:42:02.868Z</time></trkpt><trkpt lat="39.65467815553239" lon="9.421585688453963"><ele>490.4</ele><time>2026-04-28T13:42:03.868Z</time></trkpt><trkpt lat="39.65478939263347" lon="9.42156829982293"><ele>491.79999999999995</ele><time>2026-04-28T13:42:04.868Z</time></trkpt><trkpt lat="39.65487111611333" lon="9.421575487678364"><ele>493.20000000000005</ele><time>2026-04-28T13:42:05.868Z</time></trkpt><trkpt lat="39.654953682982686" lon="9.421647227694104"><ele>494.6</ele><time>2026-04-28T13:42:07.868Z</time></trkpt><trkpt lat="39.6549246236548" lon="9.421773873054228"><ele>496.0</ele><time>2026-04-28T13:42:09.868Z</time></trkpt><trkpt lat="39.65484269323856" lon="9.421834845085419"><ele>496.0</ele><time>2026-04-28T13:42:10.868Z</time></trkpt><trkpt lat="39.65476674897678" lon="9.421941803291622"><ele>496.0</ele><time>2026-04-28T13:42:11.868Z</time></trkpt><trkpt lat="39.65469737989446" lon="9.422071313026544"><ele>496.0</ele><time>2026-04-28T13:42:12.868Z</time></trkpt><trkpt lat="39.65459762627868" lon="9.422179628415181"><ele>496.0</ele><time>2026-04-28T13:42:13.868Z</time></trkpt><trkpt lat="39.65452611695423" lon="9.422306736472061"><ele>496.50000000000006</ele><time>2026-04-28T13:42:14.868Z</time></trkpt><trkpt lat="39.654491402023126" lon="9.422405210085387"><ele>497.0</ele><time>2026-04-28T13:42:15.868Z</time></trkpt><trkpt lat="39.65448771177971" lon="9.422487651143124"><ele>497.5</ele><time>2026-04-28T13:42:17.868Z</time></trkpt><trkpt lat="39.654530109539714" lon="9.422549795995062"><ele>498.0</ele><time>2026-04-28T13:42:18.868Z</time></trkpt><trkpt lat="39.6546560871604" lon="9.422530133770447"><ele>498.50000000000006</ele><time>2026-04-28T13:42:20.868Z</time></trkpt><trkpt lat="39.65472831514487" lon="9.422518867390421"><ele>499.0</ele><time>2026-04-28T13:42:21.868Z</time></trkpt><trkpt lat="39.65482218382952" lon="9.422511466493924"><ele>499.0</ele><time>2026-04-28T13:42:22.868Z</time></trkpt><trkpt lat="39.654908734417965" lon="9.422466561928424"><ele>499.0</ele><time>2026-04-28T13:42:23.868Z</time></trkpt><trkpt lat="39.654990752493546" lon="9.422432104587513"><ele>499.0</ele><time>2026-04-28T13:42:24.868Z</time></trkpt><trkpt lat="39.65508939391408" lon="9.422408621112641"><ele>499.0</ele><time>2026-04-28T13:42:25.868Z</time></trkpt><trkpt lat="39.6551970074424" lon="9.42238186369931"><ele>499.0</ele><time>2026-04-28T13:42:26.868Z</time></trkpt><trkpt lat="39.65530685469629" lon="9.422382286999317"><ele>499.25</ele><time>2026-04-28T13:42:27.868Z</time></trkpt><trkpt lat="39.65542679040346" lon="9.422366944263418"><ele>499.5</ele><time>2026-04-28T13:42:28.868Z</time></trkpt><trkpt lat="39.65554916186475" lon="9.42235749396562"><ele>499.75</ele><time>2026-04-28T13:42:29.868Z</time></trkpt><trkpt lat="39.65567204745651" lon="9.422338437764298"><ele>500.0</ele><time>2026-04-28T13:42:30.868Z</time></trkpt><trkpt lat="39.655796005359505" lon="9.422310894738528"><ele>500.0</ele><time>2026-04-28T13:42:31.868Z</time></trkpt><trkpt lat="39.65592213965458" lon="9.422265404737482"><ele>500.0</ele><time>2026-04-28T13:42:32.868Z</time></trkpt><trkpt lat="39.65606708121762" lon="9.422211627177322"><ele>500.0</ele><time>2026-04-28T13:42:33.868Z</time></trkpt><trkpt lat="39.65620645903256" lon="9.422163094331191"><ele>500.0</ele><time>2026-04-28T13:42:34.868Z</time></trkpt><trkpt lat="39.6563549600555" lon="9.422109116946435"><ele>503.66666666666663</ele><time>2026-04-28T13:42:35.868Z</time></trkpt><trkpt lat="39.65650086935397" lon="9.422055243492006"><ele>507.33333333333337</ele><time>2026-04-28T13:42:36.868Z</time></trkpt><trkpt lat="39.65664445663006" lon="9.421996600890377"><ele>511.0</ele><time>2026-04-28T13:42:37.868Z</time></trkpt><trkpt lat="39.656786522361514" lon="9.421941887038999"><ele>511.0</ele><time>2026-04-28T13:42:38.868Z</time></trkpt><trkpt lat="39.65693377141843" lon="9.421881870278764"><ele>511.0</ele><time>2026-04-28T13:42:39.868Z</time></trkpt><trkpt lat="39.657074303977765" lon="9.42181197105034"><ele>511.0</ele><time>2026-04-28T13:42:40.868Z</time></trkpt><trkpt lat="39.65720968898349" lon="9.421736523881913"><ele>512.5</ele><time>2026-04-28T13:42:41.868Z</time></trkpt><trkpt lat="39.65733848346797" lon="9.421661314523659"><ele>514.0</ele><time>2026-04-28T13:42:42.868Z</time></trkpt><trkpt lat="39.657473028808006" lon="9.421608003315086"><ele>515.5</ele><time>2026-04-28T13:42:43.868Z</time></trkpt><trkpt lat="39.65760597591445" lon="9.421564105609288"><ele>517.0</ele><time>2026-04-28T13:42:44.868Z</time></trkpt><trkpt lat="39.65774344478587" lon="9.421544529811086"><ele>517.25</ele><time>2026-04-28T13:42:45.868Z</time></trkpt><trkpt lat="39.657868659629884" lon="9.421548545065317"><ele>517.5</ele><time>2026-04-28T13:42:46.868Z</time></trkpt><trkpt lat="39.65800749551626" lon="9.421563445012072"><ele>517.75</ele><time>2026-04-28T13:42:47.868Z</time></trkpt><trkpt lat="39.65814110551732" lon="9.42159643533949"><ele>518.0</ele><time>2026-04-28T13:42:48.868Z</time></trkpt><trkpt lat="39.658264737034564" lon="9.421599080663135"><ele>518.0</ele><time>2026-04-28T13:42:49.868Z</time></trkpt><trkpt lat="39.658384063521765" lon="9.421566451363434"><ele>518.0</ele><time>2026-04-28T13:42:50.868Z</time></trkpt><trkpt lat="39.65850252963999" lon="9.421514971668486"><ele>518.0</ele><time>2026-04-28T13:42:51.868Z</time></trkpt><trkpt lat="39.65862543095452" lon="9.421446826522331"><ele>518.0</ele><time>2026-04-28T13:42:52.868Z</time></trkpt><trkpt lat="39.65874245396609" lon="9.421378634607532"><ele>517.5</ele><time>2026-04-28T13:42:53.868Z</time></trkpt><trkpt lat="39.65886222917188" lon="9.421375912704859"><ele>517.0</ele><time>2026-04-28T13:42:54.868Z</time></trkpt><trkpt lat="39.65898913716908" lon="9.421370626254243"><ele>516.5</ele><time>2026-04-28T13:42:55.868Z</time></trkpt><trkpt lat="39.65911609552272" lon="9.421338951343863"><ele>516.0</ele><time>2026-04-28T13:42:56.868Z</time></trkpt><trkpt lat="39.659241480680365" lon="9.421301391185862"><ele>518.25</ele><time>2026-04-28T13:42:57.868Z</time></trkpt><trkpt lat="39.659361705645246" lon="9.421255809230564"><ele>520.5</ele><time>2026-04-28T13:42:58.868Z</time></trkpt><trkpt lat="39.65948734252194" lon="9.421234225033333"><ele>522.75</ele><time>2026-04-28T13:42:59.868Z</time></trkpt><trkpt lat="39.65961118961149" lon="9.421241375267233"><ele>525.0</ele><time>2026-04-28T13:43:00.868Z</time></trkpt><trkpt lat="39.65973900748634" lon="9.421268737113964"><ele>525.0</ele><time>2026-04-28T13:43:01.868Z</time></trkpt><trkpt lat="39.65987455468172" lon="9.421300256454648"><ele>525.0</ele><time>2026-04-28T13:43:02.868Z</time></trkpt><trkpt lat="39.660016034240094" lon="9.421319175485255"><ele>525.0</ele><time>2026-04-28T13:43:03.868Z</time></trkpt><trkpt lat="39.66015381001302" lon="9.421327089196852"><ele>525.0</ele><time>2026-04-28T13:43:04.868Z</time></trkpt><trkpt lat="39.66030511097338" lon="9.421347624788584"><ele>524.5</ele><time>2026-04-28T13:43:05.868Z</time></trkpt><trkpt lat="39.66044406821114" lon="9.421354842885641"><ele>524.0</ele><time>2026-04-28T13:43:06.868Z</time></trkpt><trkpt lat="39.66056869624309" lon="9.421399888812834"><ele>523.5</ele><time>2026-04-28T13:43:07.868Z</time></trkpt><trkpt lat="39.660683597949934" lon="9.421449624065135"><ele>523.0</ele><time>2026-04-28T13:43:08.868Z</time></trkpt><trkpt lat="39.660764793740384" lon="9.421495851014013"><ele>523.0</ele><time>2026-04-28T13:43:09.868Z</time></trkpt><trkpt lat="39.66083695641734" lon="9.42153602141796"><ele>523.0</ele><time>2026-04-28T13:43:10.868Z</time></trkpt><trkpt lat="39.660901099631886" lon="9.421582205860672"><ele>523.0</ele><time>2026-04-28T13:43:11.868Z</time></trkpt><trkpt lat="39.66096788202834" lon="9.421640215023388"><ele>523.0</ele><time>2026-04-28T13:43:12.868Z</time></trkpt><trkpt lat="39.661026762659205" lon="9.42172735850692"><ele>523.0</ele><time>2026-04-28T13:43:13.868Z</time></trkpt><trkpt lat="39.66110715628767" lon="9.421781931458845"><ele>523.0</ele><time>2026-04-28T13:43:14.868Z</time></trkpt><trkpt lat="39.66120139265052" lon="9.421846076715196"><ele>522.1999999999999</ele><time>2026-04-28T13:43:15.868Z</time></trkpt><trkpt lat="39.66129667114901" lon="9.421914650012608"><ele>521.4</ele><time>2026-04-28T13:43:16.868Z</time></trkpt><trkpt lat="39.66137659955846" lon="9.422003656863444"><ele>520.5999999999999</ele><time>2026-04-28T13:43:17.868Z</time></trkpt><trkpt lat="39.66144769260615" lon="9.422102050169311"><ele>519.8</ele><time>2026-04-28T13:43:18.868Z</time></trkpt><trkpt lat="39.66149948179963" lon="9.422194180988372"><ele>519.0</ele><time>2026-04-28T13:43:19.868Z</time></trkpt><trkpt lat="39.661480529604255" lon="9.422316135368538"><ele>518.6</ele><time>2026-04-28T13:43:20.868Z</time></trkpt><trkpt lat="39.66150030520092" lon="9.42243194211411"><ele>518.2</ele><time>2026-04-28T13:43:21.868Z</time></trkpt><trkpt lat="39.661541304175884" lon="9.422529380047974"><ele>517.8000000000001</ele><time>2026-04-28T13:43:22.868Z</time></trkpt><trkpt lat="39.66157841179301" lon="9.422640197378973"><ele>517.4</ele><time>2026-04-28T13:43:23.868Z</time></trkpt><trkpt lat="39.661627746163234" lon="9.42275235363107"><ele>517.0</ele><time>2026-04-28T13:43:24.867Z</time></trkpt><trkpt lat="39.661686789763394" lon="9.422864060656007"><ele>517.0</ele><time>2026-04-28T13:43:25.867Z</time></trkpt><trkpt lat="39.66175008940905" lon="9.422975736004537"><ele>517.0</ele><time>2026-04-28T13:43:26.867Z</time></trkpt><trkpt lat="39.661818143656625" lon="9.423090067905546"><ele>517.0</ele><time>2026-04-28T13:43:27.867Z</time></trkpt><trkpt lat="39.661891846239314" lon="9.423187063481114"><ele>517.0</ele><time>2026-04-28T13:43:28.867Z</time></trkpt><trkpt lat="39.66196724702413" lon="9.423268977549496"><ele>517.0</ele><time>2026-04-28T13:43:29.866Z</time></trkpt><trkpt lat="39.6620573047261" lon="9.423334575458618"><ele>517.6</ele><time>2026-04-28T13:43:30.866Z</time></trkpt><trkpt lat="39.662147625855226" lon="9.423381085768602"><ele>518.2</ele><time>2026-04-28T13:43:31.866Z</time></trkpt><trkpt lat="39.66225103545556" lon="9.423410216883266"><ele>518.8</ele><time>2026-04-28T13:43:32.866Z</time></trkpt><trkpt lat="39.66236017469429" lon="9.423427236859725"><ele>519.4</ele><time>2026-04-28T13:43:33.866Z</time></trkpt><trkpt lat="39.66246460944848" lon="9.423439334239486"><ele>520.0</ele><time>2026-04-28T13:43:34.866Z</time></trkpt><trkpt lat="39.66257774022518" lon="9.423454369474632"><ele>520.0</ele><time>2026-04-28T13:43:35.866Z</time></trkpt><trkpt lat="39.66268834621071" lon="9.423485131264336"><ele>520.0</ele><time>2026-04-28T13:43:36.865Z</time></trkpt><trkpt lat="39.66277824758435" lon="9.42349765946276"><ele>520.0</ele><time>2026-04-28T13:43:37.865Z</time></trkpt><trkpt lat="39.66284651741066" lon="9.423510585525491"><ele>520.0</ele><time>2026-04-28T13:43:38.865Z</time></trkpt><trkpt lat="39.662939190427984" lon="9.423558351741478"><ele>520.0</ele><time>2026-04-28T13:43:40.863Z</time></trkpt><trkpt lat="39.663010018557934" lon="9.423681462711084"><ele>520.6</ele><time>2026-04-28T13:43:42.863Z</time></trkpt><trkpt lat="39.66305197865523" lon="9.423786041045839"><ele>521.2</ele><time>2026-04-28T13:43:43.864Z</time></trkpt><trkpt lat="39.663100473399325" lon="9.42390836467817"><ele>521.8</ele><time>2026-04-28T13:43:44.863Z</time></trkpt><trkpt lat="39.663153902842126" lon="9.424040271704527"><ele>522.4</ele><time>2026-04-28T13:43:45.863Z</time></trkpt><trkpt lat="39.6632143394152" lon="9.424176552517947"><ele>523.0</ele><time>2026-04-28T13:43:46.863Z</time></trkpt><trkpt lat="39.663282770798986" lon="9.42432147890878"><ele>524.0</ele><time>2026-04-28T13:43:47.862Z</time></trkpt><trkpt lat="39.663347359644334" lon="9.424475164942235"><ele>525.0</ele><time>2026-04-28T13:43:48.862Z</time></trkpt><trkpt lat="39.66340983567203" lon="9.424618856323491"><ele>526.0</ele><time>2026-04-28T13:43:49.863Z</time></trkpt><trkpt lat="39.663477111817485" lon="9.424768856905011"><ele>527.0</ele><time>2026-04-28T13:43:50.863Z</time></trkpt><trkpt lat="39.66354658436426" lon="9.42492593836279"><ele>527.6666666666666</ele><time>2026-04-28T13:43:51.863Z</time></trkpt><trkpt lat="39.663620692493446" lon="9.425093889752084"><ele>528.3333333333334</ele><time>2026-04-28T13:43:52.862Z</time></trkpt><trkpt lat="39.66369574257652" lon="9.425267137785863"><ele>529.0</ele><time>2026-04-28T13:43:53.863Z</time></trkpt><trkpt lat="39.66377811332593" lon="9.425449553464322"><ele>530.6666666666667</ele><time>2026-04-28T13:43:54.863Z</time></trkpt><trkpt lat="39.663858251717606" lon="9.425634718611969"><ele>532.3333333333334</ele><time>2026-04-28T13:43:55.863Z</time></trkpt><trkpt lat="39.66394561386818" lon="9.425822283141674"><ele>534.0</ele><time>2026-04-28T13:43:56.863Z</time></trkpt><trkpt lat="39.664023340024464" lon="9.426004410440981"><ele>534.0</ele><time>2026-04-28T13:43:57.863Z</time></trkpt><trkpt lat="39.66411112372991" lon="9.42620244304866"><ele>534.0</ele><time>2026-04-28T13:43:58.863Z</time></trkpt><trkpt lat="39.66419099059265" lon="9.426402952666779"><ele>534.0</ele><time>2026-04-28T13:43:59.863Z</time></trkpt><trkpt lat="39.66428292592685" lon="9.426604081914956"><ele>536.0</ele><time>2026-04-28T13:44:00.863Z</time></trkpt><trkpt lat="39.66437405888592" lon="9.426808427268966"><ele>538.0</ele><time>2026-04-28T13:44:01.862Z</time></trkpt><trkpt lat="39.66446381736794" lon="9.4270167559586"><ele>540.0</ele><time>2026-04-28T13:44:02.862Z</time></trkpt><trkpt lat="39.66455216847962" lon="9.427227899633255"><ele>542.0</ele><time>2026-04-28T13:44:03.862Z</time></trkpt><trkpt lat="39.6646480678132" lon="9.427439111414841"><ele>544.0</ele><time>2026-04-28T13:44:04.862Z</time></trkpt><trkpt lat="39.66474190841681" lon="9.427652801719331"><ele>546.0</ele><time>2026-04-28T13:44:05.862Z</time></trkpt><trkpt lat="39.66483421997883" lon="9.427867678559936"><ele>546.6666666666666</ele><time>2026-04-28T13:44:06.862Z</time></trkpt><trkpt lat="39.66493245001655" lon="9.42808017225498"><ele>547.3333333333333</ele><time>2026-04-28T13:44:07.862Z</time></trkpt><trkpt lat="39.66501390960222" lon="9.428299209925001"><ele>548.0</ele><time>2026-04-28T13:44:08.862Z</time></trkpt><trkpt lat="39.66510162525731" lon="9.428524625928844"><ele>548.0</ele><time>2026-04-28T13:44:09.862Z</time></trkpt><trkpt lat="39.66517656279992" lon="9.428756814236428"><ele>548.0</ele><time>2026-04-28T13:44:10.862Z</time></trkpt><trkpt lat="39.66524648355162" lon="9.428989837384837"><ele>548.0</ele><time>2026-04-28T13:44:11.862Z</time></trkpt><trkpt lat="39.6653034205085" lon="9.429232463146342"><ele>545.6666666666666</ele><time>2026-04-28T13:44:12.862Z</time></trkpt><trkpt lat="39.665355580285535" lon="9.429476418968463"><ele>543.3333333333334</ele><time>2026-04-28T13:44:13.862Z</time></trkpt><trkpt lat="39.66540172960967" lon="9.42972483038168"><ele>541.0</ele><time>2026-04-28T13:44:14.862Z</time></trkpt><trkpt lat="39.66545482975347" lon="9.429968454694507"><ele>541.0</ele><time>2026-04-28T13:44:15.862Z</time></trkpt><trkpt lat="39.66550764682919" lon="9.430214132248999"><ele>541.0</ele><time>2026-04-28T13:44:16.862Z</time></trkpt><trkpt lat="39.665555657269266" lon="9.430449888892294"><ele>541.0</ele><time>2026-04-28T13:44:17.862Z</time></trkpt><trkpt lat="39.66560767698006" lon="9.430678573461586"><ele>541.3333333333334</ele><time>2026-04-28T13:44:18.862Z</time></trkpt><trkpt lat="39.665654479685706" lon="9.430903128598196"><ele>541.6666666666666</ele><time>2026-04-28T13:44:19.862Z</time></trkpt><trkpt lat="39.6657085697624" lon="9.431123801797844"><ele>542.0</ele><time>2026-04-28T13:44:20.862Z</time></trkpt><trkpt lat="39.66576939521241" lon="9.431333972341466"><ele>544.6666666666666</ele><time>2026-04-28T13:44:21.862Z</time></trkpt><trkpt lat="39.66584211747169" lon="9.431537436820294"><ele>547.3333333333334</ele><time>2026-04-28T13:44:22.862Z</time></trkpt><trkpt lat="39.66592117598373" lon="9.431739115119509"><ele>550.0</ele><time>2026-04-28T13:44:23.862Z</time></trkpt><trkpt lat="39.66601130757814" lon="9.431932112459373"><ele>550.0</ele><time>2026-04-28T13:44:24.862Z</time></trkpt><trkpt lat="39.66610280000563" lon="9.432124989219178"><ele>550.0</ele><time>2026-04-28T13:44:25.862Z</time></trkpt><trkpt lat="39.66619674289564" lon="9.432324536102849"><ele>550.0</ele><time>2026-04-28T13:44:26.862Z</time></trkpt><trkpt lat="39.66626957608991" lon="9.432536872198893"><ele>546.0</ele><time>2026-04-28T13:44:27.863Z</time></trkpt><trkpt lat="39.66633455351965" lon="9.432753400512546"><ele>542.0</ele><time>2026-04-28T13:44:28.863Z</time></trkpt><trkpt lat="39.666384321931304" lon="9.432968698987192"><ele>538.0</ele><time>2026-04-28T13:44:29.863Z</time></trkpt><trkpt lat="39.66641192428012" lon="9.433185686123561"><ele>538.0</ele><time>2026-04-28T13:44:30.863Z</time></trkpt><trkpt lat="39.66640335775603" lon="9.433400858438958"><ele>538.0</ele><time>2026-04-28T13:44:31.863Z</time></trkpt><trkpt lat="39.66638892963873" lon="9.43361702703575"><ele>538.0</ele><time>2026-04-28T13:44:32.863Z</time></trkpt><trkpt lat="39.666359211941774" lon="9.433827105411371"><ele>536.6666666666667</ele><time>2026-04-28T13:44:33.863Z</time></trkpt><trkpt lat="39.66631336651993" lon="9.434036889529187"><ele>535.3333333333334</ele><time>2026-04-28T13:44:34.863Z</time></trkpt><trkpt lat="39.66625165650169" lon="9.434237524388166"><ele>534.0</ele><time>2026-04-28T13:44:35.863Z</time></trkpt><trkpt lat="39.66616756099172" lon="9.434421888712897"><ele>539.0</ele><time>2026-04-28T13:44:36.863Z</time></trkpt><trkpt lat="39.66606792467686" lon="9.434594646326444"><ele>544.0</ele><time>2026-04-28T13:44:37.863Z</time></trkpt><trkpt lat="39.66596657015682" lon="9.434747677589616"><ele>549.0</ele><time>2026-04-28T13:44:38.863Z</time></trkpt><trkpt lat="39.665881526936595" lon="9.43490301121372"><ele>549.0</ele><time>2026-04-28T13:44:39.863Z</time></trkpt><trkpt lat="39.66582328299023" lon="9.43504200123325"><ele>549.0</ele><time>2026-04-28T13:44:40.863Z</time></trkpt><trkpt lat="39.665790435834545" lon="9.435194110293146"><ele>549.0</ele><time>2026-04-28T13:44:41.863Z</time></trkpt><trkpt lat="39.66577568403692" lon="9.43535171401167"><ele>549.0</ele><time>2026-04-28T13:44:42.863Z</time></trkpt><trkpt lat="39.665785061425325" lon="9.43550856254721"><ele>547.5</ele><time>2026-04-28T13:44:43.863Z</time></trkpt><trkpt lat="39.66582222823964" lon="9.435661109412866"><ele>546.0</ele><time>2026-04-28T13:44:44.863Z</time></trkpt><trkpt lat="39.66587001300721" lon="9.435792698351305"><ele>544.5</ele><time>2026-04-28T13:44:45.863Z</time></trkpt><trkpt lat="39.665939742833224" lon="9.435917385927143"><ele>543.0</ele><time>2026-04-28T13:44:46.863Z</time></trkpt><trkpt lat="39.6660268354824" lon="9.43602211721354"><ele>544.25</ele><time>2026-04-28T13:44:47.863Z</time></trkpt><trkpt lat="39.666126963885254" lon="9.43609615280207"><ele>545.5</ele><time>2026-04-28T13:44:48.863Z</time></trkpt><trkpt lat="39.666241931223254" lon="9.436136251855487"><ele>546.75</ele><time>2026-04-28T13:44:49.863Z</time></trkpt><trkpt lat="39.66636710603808" lon="9.436150614687866"><ele>548.0</ele><time>2026-04-28T13:44:50.863Z</time></trkpt><trkpt lat="39.66648982080961" lon="9.436134985300527"><ele>548.0</ele><time>2026-04-28T13:44:51.863Z</time></trkpt><trkpt lat="39.666606990768436" lon="9.43608424378273"><ele>548.0</ele><time>2026-04-28T13:44:52.863Z</time></trkpt><trkpt lat="39.6667127855003" lon="9.436004494112689"><ele>548.0</ele><time>2026-04-28T13:44:53.863Z</time></trkpt><trkpt lat="39.66680997116816" lon="9.435906068817827"><ele>548.0</ele><time>2026-04-28T13:44:54.863Z</time></trkpt><trkpt lat="39.666906260165504" lon="9.435800407601434"><ele>551.0</ele><time>2026-04-28T13:44:55.863Z</time></trkpt><trkpt lat="39.66701419332724" lon="9.43571126280039"><ele>554.0</ele><time>2026-04-28T13:44:56.863Z</time></trkpt><trkpt lat="39.66713101537245" lon="9.43564062011261"><ele>557.0</ele><time>2026-04-28T13:44:57.863Z</time></trkpt><trkpt lat="39.66726170901886" lon="9.435582401918138"><ele>560.0</ele><time>2026-04-28T13:44:58.863Z</time></trkpt><trkpt lat="39.66738968926505" lon="9.435541756922905"><ele>560.0</ele><time>2026-04-28T13:44:59.863Z</time></trkpt><trkpt lat="39.66752211378356" lon="9.435531066578346"><ele>560.0</ele><time>2026-04-28T13:45:00.863Z</time></trkpt><trkpt lat="39.667657677386416" lon="9.435551380342988"><ele>560.0</ele><time>2026-04-28T13:45:01.863Z</time></trkpt><trkpt lat="39.667800526793606" lon="9.435590735698945"><ele>560.0</ele><time>2026-04-28T13:45:02.863Z</time></trkpt><trkpt lat="39.66794684508948" lon="9.435643471133002"><ele>560.0</ele><time>2026-04-28T13:45:03.863Z</time></trkpt><trkpt lat="39.668095555370094" lon="9.435711093073587"><ele>560.0</ele><time>2026-04-28T13:45:04.863Z</time></trkpt><trkpt lat="39.668244277302946" lon="9.435791378899586"><ele>560.0</ele><time>2026-04-28T13:45:05.863Z</time></trkpt><trkpt lat="39.66839356770437" lon="9.435884259622059"><ele>560.0</ele><time>2026-04-28T13:45:06.863Z</time></trkpt><trkpt lat="39.66854340059953" lon="9.435984453806297"><ele>560.0</ele><time>2026-04-28T13:45:07.863Z</time></trkpt><trkpt lat="39.66869909662607" lon="9.436093966040096"><ele>560.0</ele><time>2026-04-28T13:45:08.863Z</time></trkpt><trkpt lat="39.6688523237035" lon="9.43620342244603"><ele>565.0</ele><time>2026-04-28T13:45:09.863Z</time></trkpt><trkpt lat="39.669005364543224" lon="9.43631141923286"><ele>570.0</ele><time>2026-04-28T13:45:10.863Z</time></trkpt><trkpt lat="39.66915865496374" lon="9.436414609050876"><ele>575.0</ele><time>2026-04-28T13:45:11.863Z</time></trkpt><trkpt lat="39.66931344816908" lon="9.436497858772897"><ele>575.3333333333333</ele><time>2026-04-28T13:45:12.863Z</time></trkpt><trkpt lat="39.66947083351563" lon="9.43657178245642"><ele>575.6666666666666</ele><time>2026-04-28T13:45:13.863Z</time></trkpt><trkpt lat="39.66963320062875" lon="9.436615095047445"><ele>576.0</ele><time>2026-04-28T13:45:14.863Z</time></trkpt><trkpt lat="39.66980267541229" lon="9.436644773146805"><ele>576.0</ele><time>2026-04-28T13:45:15.863Z</time></trkpt><trkpt lat="39.66997696039584" lon="9.436664403714536"><ele>576.0</ele><time>2026-04-28T13:45:16.863Z</time></trkpt><trkpt lat="39.670154631315896" lon="9.436681754933783"><ele>576.0</ele><time>2026-04-28T13:45:17.863Z</time></trkpt><trkpt lat="39.67033606547735" lon="9.436699554792295"><ele>578.0</ele><time>2026-04-28T13:45:18.863Z</time></trkpt><trkpt lat="39.6705040155813" lon="9.436719938457598"><ele>580.0</ele><time>2026-04-28T13:45:19.863Z</time></trkpt><trkpt lat="39.6706637519047" lon="9.436748932670046"><ele>582.0</ele><time>2026-04-28T13:45:20.863Z</time></trkpt><trkpt lat="39.67081358603136" lon="9.436788607122809"><ele>582.0</ele><time>2026-04-28T13:45:21.863Z</time></trkpt><trkpt lat="39.67096154815048" lon="9.436855011580997"><ele>582.0</ele><time>2026-04-28T13:45:22.863Z</time></trkpt><trkpt lat="39.67111417721336" lon="9.43693677683326"><ele>582.0</ele><time>2026-04-28T13:45:23.863Z</time></trkpt><trkpt lat="39.67127058328489" lon="9.43702972340445"><ele>582.0</ele><time>2026-04-28T13:45:24.863Z</time></trkpt><trkpt lat="39.671435484694896" lon="9.437129037518876"><ele>582.0</ele><time>2026-04-28T13:45:25.863Z</time></trkpt><trkpt lat="39.67160674243566" lon="9.437236019984548"><ele>582.0</ele><time>2026-04-28T13:45:26.863Z</time></trkpt><trkpt lat="39.67178080475095" lon="9.437346361158346"><ele>579.6666666666666</ele><time>2026-04-28T13:45:27.863Z</time></trkpt><trkpt lat="39.671960959083066" lon="9.437459083388275"><ele>577.3333333333333</ele><time>2026-04-28T13:45:28.863Z</time></trkpt><trkpt lat="39.672134657136446" lon="9.43757442783003"><ele>575.0</ele><time>2026-04-28T13:45:29.863Z</time></trkpt><trkpt lat="39.672307407364094" lon="9.437701727221771"><ele>575.0</ele><time>2026-04-28T13:45:30.863Z</time></trkpt><trkpt lat="39.672479472437985" lon="9.437844113409989"><ele>575.0</ele><time>2026-04-28T13:45:31.863Z</time></trkpt><trkpt lat="39.67265007892524" lon="9.438010642795144"><ele>575.0</ele><time>2026-04-28T13:45:32.863Z</time></trkpt><trkpt lat="39.672820291763394" lon="9.43818466748823"><ele>575.5</ele><time>2026-04-28T13:45:33.863Z</time></trkpt><trkpt lat="39.672998805181635" lon="9.438370301788291"><ele>576.0</ele><time>2026-04-28T13:45:34.863Z</time></trkpt><trkpt lat="39.673162768698376" lon="9.438564517885686"><ele>576.0</ele><time>2026-04-28T13:45:35.863Z</time></trkpt><trkpt lat="39.67331723574716" lon="9.438727209129569"><ele>576.0</ele><time>2026-04-28T13:45:36.863Z</time></trkpt><trkpt lat="39.67347670335134" lon="9.438893005613282"><ele>576.0</ele><time>2026-04-28T13:45:37.863Z</time></trkpt><trkpt lat="39.673639430026704" lon="9.439064365673138"><ele>577.0</ele><time>2026-04-28T13:45:38.863Z</time></trkpt><trkpt lat="39.67380194978409" lon="9.43923409048499"><ele>578.0</ele><time>2026-04-28T13:45:39.863Z</time></trkpt><trkpt lat="39.67395863464964" lon="9.439397721622747"><ele>579.0</ele><time>2026-04-28T13:45:40.863Z</time></trkpt><trkpt lat="39.67412270662723" lon="9.439535222733062"><ele>580.3333333333334</ele><time>2026-04-28T13:45:41.863Z</time></trkpt><trkpt lat="39.674279818198634" lon="9.43966189480708"><ele>581.6666666666667</ele><time>2026-04-28T13:45:42.863Z</time></trkpt><trkpt lat="39.674437277990236" lon="9.43976050680599"><ele>583.0</ele><time>2026-04-28T13:45:43.863Z</time></trkpt><trkpt lat="39.67460849195517" lon="9.439847851509592"><ele>583.0</ele><time>2026-04-28T13:45:44.863Z</time></trkpt><trkpt lat="39.67479132275294" lon="9.439926059391393"><ele>583.0</ele><time>2026-04-28T13:45:45.863Z</time></trkpt><trkpt lat="39.674978819482284" lon="9.44001047350703"><ele>583.0</ele><time>2026-04-28T13:45:46.861Z</time></trkpt><trkpt lat="39.675168605190414" lon="9.440105199259557"><ele>583.6666666666667</ele><time>2026-04-28T13:45:47.86Z</time></trkpt><trkpt lat="39.675361693416114" lon="9.440199831206025"><ele>584.3333333333334</ele><time>2026-04-28T13:45:48.86Z</time></trkpt><trkpt lat="39.675550959978125" lon="9.440283451247897"><ele>585.0</ele><time>2026-04-28T13:45:49.861Z</time></trkpt><trkpt lat="39.67573813262801" lon="9.440345259233785"><ele>585.0</ele><time>2026-04-28T13:45:50.861Z</time></trkpt><trkpt lat="39.67592211149247" lon="9.440380505323777"><ele>585.0</ele><time>2026-04-28T13:45:51.861Z</time></trkpt><trkpt lat="39.67610111663417" lon="9.440396613753249"><ele>585.0</ele><time>2026-04-28T13:45:52.861Z</time></trkpt><trkpt lat="39.67627755532398" lon="9.440397897224903"><ele>587.0</ele><time>2026-04-28T13:45:53.861Z</time></trkpt><trkpt lat="39.67645658806821" lon="9.440391298685928"><ele>589.0</ele><time>2026-04-28T13:45:54.861Z</time></trkpt><trkpt lat="39.67663369885325" lon="9.440382465579747"><ele>591.0</ele><time>2026-04-28T13:45:55.861Z</time></trkpt><trkpt lat="39.67680631370414" lon="9.440363581368672"><ele>592.0</ele><time>2026-04-28T13:45:56.86Z</time></trkpt><trkpt lat="39.67696869838082" lon="9.440349843248399"><ele>593.0</ele><time>2026-04-28T13:45:57.861Z</time></trkpt><trkpt lat="39.67712661108429" lon="9.440340362270186"><ele>594.0</ele><time>2026-04-28T13:45:58.86Z</time></trkpt><trkpt lat="39.6772769455996" lon="9.440334241511543"><ele>594.0</ele><time>2026-04-28T13:45:59.86Z</time></trkpt><trkpt lat="39.67741792984613" lon="9.440341176698903"><ele>594.0</ele><time>2026-04-28T13:46:00.86Z</time></trkpt><trkpt lat="39.67755329667996" lon="9.440369199871252"><ele>594.0</ele><time>2026-04-28T13:46:01.86Z</time></trkpt><trkpt lat="39.67768990623724" lon="9.440419173250564"><ele>594.0</ele><time>2026-04-28T13:46:02.86Z</time></trkpt><trkpt lat="39.67782655708056" lon="9.440490374631727"><ele>595.0</ele><time>2026-04-28T13:46:03.86Z</time></trkpt><trkpt lat="39.677956987081544" lon="9.44058232455555"><ele>596.0</ele><time>2026-04-28T13:46:04.86Z</time></trkpt><trkpt lat="39.67808190139006" lon="9.440682117433228"><ele>597.0</ele><time>2026-04-28T13:46:05.86Z</time></trkpt><trkpt lat="39.67821651056992" lon="9.44077280490923"><ele>598.0</ele><time>2026-04-28T13:46:06.86Z</time></trkpt><trkpt lat="39.678344576460475" lon="9.440839888058905"><ele>598.0</ele><time>2026-04-28T13:46:07.86Z</time></trkpt><trkpt lat="39.67846748926638" lon="9.440887109321412"><ele>598.0</ele><time>2026-04-28T13:46:08.86Z</time></trkpt><trkpt lat="39.67857541850377" lon="9.440926995951841"><ele>598.0</ele><time>2026-04-28T13:46:09.86Z</time></trkpt><trkpt lat="39.678670188707216" lon="9.440952471839372"><ele>598.0</ele><time>2026-04-28T13:46:10.86Z</time></trkpt><trkpt lat="39.67876621316029" lon="9.4409702882813"><ele>598.0</ele><time>2026-04-28T13:46:11.86Z</time></trkpt><trkpt lat="39.678841621959144" lon="9.440990551061914"><ele>598.1666666666667</ele><time>2026-04-28T13:46:12.86Z</time></trkpt><trkpt lat="39.67896822755334" lon="9.440987871891112"><ele>598.3333333333334</ele><time>2026-04-28T13:46:14.86Z</time></trkpt><trkpt lat="39.67904120718517" lon="9.440970530553642"><ele>598.5</ele><time>2026-04-28T13:46:15.861Z</time></trkpt><trkpt lat="39.679117459884075" lon="9.440978892975233"><ele>598.6666666666666</ele><time>2026-04-28T13:46:16.861Z</time></trkpt><trkpt lat="39.67918049772865" lon="9.440976180528608"><ele>598.8333333333333</ele><time>2026-04-28T13:46:17.861Z</time></trkpt><trkpt lat="39.679250103137704" lon="9.440960278673042"><ele>599.0</ele><time>2026-04-28T13:46:18.861Z</time></trkpt><trkpt lat="39.6793400002703" lon="9.440965544002168"><ele>599.2</ele><time>2026-04-28T13:46:19.861Z</time></trkpt><trkpt lat="39.67944994381293" lon="9.440928735507754"><ele>599.4</ele><time>2026-04-28T13:46:20.861Z</time></trkpt><trkpt lat="39.679553479578345" lon="9.440887599305523"><ele>599.6</ele><time>2026-04-28T13:46:21.861Z</time></trkpt><trkpt lat="39.679655895351175" lon="9.440839173368905"><ele>599.8</ele><time>2026-04-28T13:46:22.861Z</time></trkpt><trkpt lat="39.679743508681135" lon="9.440795617776708"><ele>600.0</ele><time>2026-04-28T13:46:23.861Z</time></trkpt><trkpt lat="39.679810392003375" lon="9.440766473395662"><ele>600.0</ele><time>2026-04-28T13:46:24.861Z</time></trkpt><trkpt lat="39.67992773228154" lon="9.440718686369317"><ele>600.0</ele><time>2026-04-28T13:46:26.861Z</time></trkpt><trkpt lat="39.68000584013076" lon="9.440690028591096"><ele>600.0</ele><time>2026-04-28T13:46:27.861Z</time></trkpt><trkpt lat="39.680087609895416" lon="9.440674447273608"><ele>600.0</ele><time>2026-04-28T13:46:28.861Z</time></trkpt><trkpt lat="39.680196862701344" lon="9.440645555858469"><ele>600.0</ele><time>2026-04-28T13:46:29.861Z</time></trkpt><trkpt lat="39.68033086400148" lon="9.440659774930934"><ele>600.2</ele><time>2026-04-28T13:46:30.861Z</time></trkpt><trkpt lat="39.68043996172801" lon="9.44065093217836"><ele>600.4</ele><time>2026-04-28T13:46:31.861Z</time></trkpt><trkpt lat="39.680545896073454" lon="9.440629096674224"><ele>600.6</ele><time>2026-04-28T13:46:32.861Z</time></trkpt><trkpt lat="39.68064952988658" lon="9.440614922765073"><ele>600.8</ele><time>2026-04-28T13:46:33.861Z</time></trkpt><trkpt lat="39.68075409190371" lon="9.440606462082457"><ele>601.0</ele><time>2026-04-28T13:46:34.861Z</time></trkpt><trkpt lat="39.68084986535399" lon="9.440590774056757"><ele>601.0</ele><time>2026-04-28T13:46:35.861Z</time></trkpt><trkpt lat="39.68093354524945" lon="9.440581266860331"><ele>601.0</ele><time>2026-04-28T13:46:36.861Z</time></trkpt><trkpt lat="39.681025856457524" lon="9.440576322930237"><ele>601.0</ele><time>2026-04-28T13:46:37.861Z</time></trkpt><trkpt lat="39.68108857482629" lon="9.440568703841453"><ele>601.0</ele><time>2026-04-28T13:46:38.861Z</time></trkpt><trkpt lat="39.68117221052601" lon="9.440573291464414"><ele>601.0</ele><time>2026-04-28T13:46:39.861Z</time></trkpt><trkpt lat="39.6812576794946" lon="9.440566459858593"><ele>601.0</ele><time>2026-04-28T13:46:40.861Z</time></trkpt><trkpt lat="39.68133694667008" lon="9.440560795092487"><ele>601.0</ele><time>2026-04-28T13:46:41.861Z</time></trkpt><trkpt lat="39.68148299788699" lon="9.440553090472964"><ele>601.0</ele><time>2026-04-28T13:46:43.861Z</time></trkpt><trkpt lat="39.68156617640198" lon="9.440552797377158"><ele>601.0</ele><time>2026-04-28T13:46:44.861Z</time></trkpt><trkpt lat="39.681635716143504" lon="9.440563589135516"><ele>601.0</ele><time>2026-04-28T13:46:45.861Z</time></trkpt><trkpt lat="39.68171826017939" lon="9.440576589667216"><ele>601.0</ele><time>2026-04-28T13:46:46.861Z</time></trkpt><trkpt lat="39.68179027471693" lon="9.440603595008993"><ele>601.0</ele><time>2026-04-28T13:46:47.861Z</time></trkpt><trkpt lat="39.68183445945654" lon="9.440681495699163"><ele>601.0</ele><time>2026-04-28T13:46:48.861Z</time></trkpt><trkpt lat="39.68190142997813" lon="9.440753677579435"><ele>601.0</ele><time>2026-04-28T13:46:49.861Z</time></trkpt><trkpt lat="39.68196156930084" lon="9.440815886274859"><ele>601.0</ele><time>2026-04-28T13:46:50.861Z</time></trkpt><trkpt lat="39.68199166494217" lon="9.440904024132953"><ele>601.0</ele><time>2026-04-28T13:46:51.861Z</time></trkpt><trkpt lat="39.68200988431113" lon="9.440999003536367"><ele>601.0</ele><time>2026-04-28T13:46:52.861Z</time></trkpt><trkpt lat="39.68202775569082" lon="9.441086145757316"><ele>601.6</ele><time>2026-04-28T13:46:53.861Z</time></trkpt><trkpt lat="39.68203347062289" lon="9.441200173010207"><ele>602.2</ele><time>2026-04-28T13:46:55.861Z</time></trkpt><trkpt lat="39.68205937961126" lon="9.441345240561953"><ele>602.8</ele><time>2026-04-28T13:46:57.861Z</time></trkpt><trkpt lat="39.68212260559999" lon="9.44132528041393"><ele>603.4</ele><time>2026-04-28T13:47:01.861Z</time></trkpt><trkpt lat="39.68209900554777" lon="9.441456769825878"><ele>604.0</ele><time>2026-04-28T13:47:03.861Z</time></trkpt><trkpt lat="39.682233259087134" lon="9.441528990262071"><ele>604.0</ele><time>2026-04-28T13:47:04.861Z</time></trkpt><trkpt lat="39.682306190061304" lon="9.441632428181457"><ele>604.0</ele><time>2026-04-28T13:47:06.861Z</time></trkpt><trkpt lat="39.68235107267579" lon="9.441714070020968"><ele>604.0</ele><time>2026-04-28T13:47:08.861Z</time></trkpt><trkpt lat="39.68240509186055" lon="9.441769003017722"><ele>604.0</ele><time>2026-04-28T13:47:10.861Z</time></trkpt><trkpt lat="39.682478451924645" lon="9.441843603835148"><ele>604.0</ele><time>2026-04-28T13:47:12.861Z</time></trkpt><trkpt lat="39.68255534618877" lon="9.441898323389129"><ele>604.0</ele><time>2026-04-28T13:47:13.861Z</time></trkpt><trkpt lat="39.682618002207334" lon="9.441951139361414"><ele>604.0</ele><time>2026-04-28T13:47:14.861Z</time></trkpt><trkpt lat="39.68268225699284" lon="9.44198445056569"><ele>604.0</ele><time>2026-04-28T13:47:15.861Z</time></trkpt><trkpt lat="39.68275970888465" lon="9.44201478443548"><ele>604.0</ele><time>2026-04-28T13:47:16.861Z</time></trkpt><trkpt lat="39.68284101064958" lon="9.442043784424644"><ele>604.0</ele><time>2026-04-28T13:47:17.861Z</time></trkpt><trkpt lat="39.68292567574922" lon="9.44207766139966"><ele>604.0</ele><time>2026-04-28T13:47:18.861Z</time></trkpt><trkpt lat="39.68300797335275" lon="9.442109751661308"><ele>604.0</ele><time>2026-04-28T13:47:19.861Z</time></trkpt><trkpt lat="39.68309629778514" lon="9.442139102278036"><ele>600.8</ele><time>2026-04-28T13:47:20.861Z</time></trkpt><trkpt lat="39.68319527567435" lon="9.442167639522083"><ele>597.5999999999999</ele><time>2026-04-28T13:47:21.861Z</time></trkpt><trkpt lat="39.68330028296617" lon="9.44218335390401"><ele>594.4</ele><time>2026-04-28T13:47:22.861Z</time></trkpt><trkpt lat="39.683402047617015" lon="9.442207100437331"><ele>591.1999999999999</ele><time>2026-04-28T13:47:23.861Z</time></trkpt><trkpt lat="39.68350214081237" lon="9.442239650613706"><ele>588.0</ele><time>2026-04-28T13:47:24.861Z</time></trkpt><trkpt lat="39.68361034353256" lon="9.442261052247375"><ele>587.25</ele><time>2026-04-28T13:47:25.861Z</time></trkpt><trkpt lat="39.68373183577207" lon="9.442275082088084"><ele>586.5</ele><time>2026-04-28T13:47:26.861Z</time></trkpt><trkpt lat="39.68385777751211" lon="9.442274309050482"><ele>585.75</ele><time>2026-04-28T13:47:27.861Z</time></trkpt><trkpt lat="39.68398343356336" lon="9.44224659102398"><ele>585.0</ele><time>2026-04-28T13:47:28.861Z</time></trkpt><trkpt lat="39.68410100945338" lon="9.442202530816783"><ele>585.0</ele><time>2026-04-28T13:47:29.861Z</time></trkpt><trkpt lat="39.68422179484287" lon="9.442166290768677"><ele>585.0</ele><time>2026-04-28T13:47:30.861Z</time></trkpt><trkpt lat="39.68433995388398" lon="9.442153410404071"><ele>585.0</ele><time>2026-04-28T13:47:31.861Z</time></trkpt><trkpt lat="39.68446929710691" lon="9.442167319075658"><ele>585.0</ele><time>2026-04-28T13:47:32.861Z</time></trkpt><trkpt lat="39.684607088501785" lon="9.442168006170768"><ele>583.25</ele><time>2026-04-28T13:47:33.861Z</time></trkpt><trkpt lat="39.68474357342679" lon="9.442135244935074"><ele>581.5</ele><time>2026-04-28T13:47:34.861Z</time></trkpt><trkpt lat="39.684868725645565" lon="9.442088056927636"><ele>579.75</ele><time>2026-04-28T13:47:35.861Z</time></trkpt><trkpt lat="39.68497508994643" lon="9.442025130947028"><ele>578.0</ele><time>2026-04-28T13:47:36.861Z</time></trkpt><trkpt lat="39.68508421999002" lon="9.442000153531326"><ele>580.25</ele><time>2026-04-28T13:47:37.861Z</time></trkpt><trkpt lat="39.68519266178894" lon="9.441957290179388"><ele>582.5</ele><time>2026-04-28T13:47:38.861Z</time></trkpt><trkpt lat="39.685307097199086" lon="9.441930496833635"><ele>584.75</ele><time>2026-04-28T13:47:39.861Z</time></trkpt><trkpt lat="39.685425998679634" lon="9.441931485491896"><ele>587.0</ele><time>2026-04-28T13:47:40.861Z</time></trkpt><trkpt lat="39.68555681727545" lon="9.441951816929276"><ele>587.0</ele><time>2026-04-28T13:47:41.861Z</time></trkpt><trkpt lat="39.68567723673046" lon="9.441973267270898"><ele>587.0</ele><time>2026-04-28T13:47:42.861Z</time></trkpt><trkpt lat="39.685793646202555" lon="9.441985010398081"><ele>587.0</ele><time>2026-04-28T13:47:43.861Z</time></trkpt><trkpt lat="39.68592061100184" lon="9.44201999241892"><ele>587.0</ele><time>2026-04-28T13:47:44.861Z</time></trkpt><trkpt lat="39.68605713791415" lon="9.442023403874515"><ele>585.0</ele><time>2026-04-28T13:47:45.861Z</time></trkpt><trkpt lat="39.68620446772445" lon="9.441954208786967"><ele>583.0</ele><time>2026-04-28T13:47:46.861Z</time></trkpt><trkpt lat="39.686341999910944" lon="9.441913630296167"><ele>581.0</ele><time>2026-04-28T13:47:47.861Z</time></trkpt><trkpt lat="39.68645156219868" lon="9.441848654646979"><ele>579.0</ele><time>2026-04-28T13:47:48.861Z</time></trkpt><trkpt lat="39.6865666670253" lon="9.441794926844613"><ele>579.0</ele><time>2026-04-28T13:47:49.861Z</time></trkpt><trkpt lat="39.686694053684754" lon="9.4417350362796"><ele>579.0</ele><time>2026-04-28T13:47:50.861Z</time></trkpt><trkpt lat="39.68683257544137" lon="9.441682805203083"><ele>579.0</ele><time>2026-04-28T13:47:51.861Z</time></trkpt><trkpt lat="39.68696381988866" lon="9.441633164814451"><ele>579.0</ele><time>2026-04-28T13:47:52.86Z</time></trkpt><trkpt lat="39.687080327860976" lon="9.441597658006756"><ele>578.4</ele><time>2026-04-28T13:47:53.86Z</time></trkpt><trkpt lat="39.68718414686521" lon="9.44157069352745"><ele>577.8</ele><time>2026-04-28T13:47:54.86Z</time></trkpt><trkpt lat="39.68727481089293" lon="9.441572420674289"><ele>577.2</ele><time>2026-04-28T13:47:55.86Z</time></trkpt><trkpt lat="39.68736459836234" lon="9.441598357638545"><ele>576.6</ele><time>2026-04-28T13:47:56.86Z</time></trkpt><trkpt lat="39.68742529166125" lon="9.441665628987229"><ele>576.0</ele><time>2026-04-28T13:47:57.86Z</time></trkpt><trkpt lat="39.68746694224188" lon="9.441757850735168"><ele>576.0</ele><time>2026-04-28T13:47:58.86Z</time></trkpt><trkpt lat="39.68748295271281" lon="9.441857226329981"><ele>576.0</ele><time>2026-04-28T13:47:59.86Z</time></trkpt><trkpt lat="39.687469046506145" lon="9.441958712082146"><ele>576.0</ele><time>2026-04-28T13:48:00.86Z</time></trkpt><trkpt lat="39.68741773812526" lon="9.442050853543966"><ele>576.0</ele><time>2026-04-28T13:48:01.86Z</time></trkpt><trkpt lat="39.68733863118076" lon="9.442134541577053"><ele>576.0</ele><time>2026-04-28T13:48:02.86Z</time></trkpt><trkpt lat="39.68724137040122" lon="9.442210142276684"><ele>577.0</ele><time>2026-04-28T13:48:03.86Z</time></trkpt><trkpt lat="39.68712481341335" lon="9.4422739729559"><ele>578.0</ele><time>2026-04-28T13:48:04.86Z</time></trkpt><trkpt lat="39.687012211501994" lon="9.442356254907613"><ele>579.0</ele><time>2026-04-28T13:48:05.859Z</time></trkpt><trkpt lat="39.686903204018535" lon="9.442440931249138"><ele>580.0</ele><time>2026-04-28T13:48:06.859Z</time></trkpt><trkpt lat="39.686805083636806" lon="9.44254514568963"><ele>579.0</ele><time>2026-04-28T13:48:07.859Z</time></trkpt><trkpt lat="39.68673693954204" lon="9.442671735674189"><ele>578.0</ele><time>2026-04-28T13:48:08.859Z</time></trkpt><trkpt lat="39.68669213843661" lon="9.44280431520098"><ele>577.0</ele><time>2026-04-28T13:48:09.859Z</time></trkpt><trkpt lat="39.686669934529256" lon="9.442968801651109"><ele>576.0</ele><time>2026-04-28T13:48:10.859Z</time></trkpt><trkpt lat="39.68664208460876" lon="9.443112787520187"><ele>576.0</ele><time>2026-04-28T13:48:11.859Z</time></trkpt><trkpt lat="39.686596833554795" lon="9.44323668293596"><ele>576.0</ele><time>2026-04-28T13:48:12.859Z</time></trkpt><trkpt lat="39.68652885144351" lon="9.443329680149962"><ele>576.0</ele><time>2026-04-28T13:48:13.859Z</time></trkpt><trkpt lat="39.68645420409596" lon="9.443435926948895"><ele>576.0</ele><time>2026-04-28T13:48:14.859Z</time></trkpt><trkpt lat="39.68637372174994" lon="9.44355137117822"><ele>576.0</ele><time>2026-04-28T13:48:15.859Z</time></trkpt><trkpt lat="39.68628097225473" lon="9.443684411409517"><ele>576.0</ele><time>2026-04-28T13:48:16.859Z</time></trkpt><trkpt lat="39.68617527381829" lon="9.443835669850063"><ele>576.0</ele><time>2026-04-28T13:48:17.859Z</time></trkpt><trkpt lat="39.686091577772935" lon="9.443955430864898"><ele>576.0</ele><time>2026-04-28T13:48:18.859Z</time></trkpt><trkpt lat="39.68600720709027" lon="9.444076157430496"><ele>576.0</ele><time>2026-04-28T13:48:19.86Z</time></trkpt><trkpt lat="39.68592071171928" lon="9.444199924004701"><ele>576.0</ele><time>2026-04-28T13:48:20.86Z</time></trkpt><trkpt lat="39.68570091352152" lon="9.444545553033988"><ele>576.0</ele><time>2026-04-28T13:48:21.86Z</time></trkpt><trkpt lat="39.68557745629042" lon="9.444706830511828"><ele>580.25</ele><time>2026-04-28T13:48:22.86Z</time></trkpt><trkpt lat="39.685467902920486" lon="9.44484956711927"><ele>584.5</ele><time>2026-04-28T13:48:23.86Z</time></trkpt><trkpt lat="39.685376737351525" lon="9.444991767080552"><ele>588.75</ele><time>2026-04-28T13:48:24.86Z</time></trkpt><trkpt lat="39.685312006916185" lon="9.44514755377877"><ele>593.0</ele><time>2026-04-28T13:48:25.86Z</time></trkpt><trkpt lat="39.68527514350704" lon="9.445322842620126"><ele>591.0</ele><time>2026-04-28T13:48:26.86Z</time></trkpt><trkpt lat="39.68526108397255" lon="9.445506827409943"><ele>589.0</ele><time>2026-04-28T13:48:27.86Z</time></trkpt><trkpt lat="39.68527531463332" lon="9.445686932262518"><ele>587.0</ele><time>2026-04-28T13:48:28.86Z</time></trkpt><trkpt lat="39.68531870934015" lon="9.44585532922757"><ele>585.0</ele><time>2026-04-28T13:48:29.86Z</time></trkpt><trkpt lat="39.685390092619194" lon="9.446016594039525"><ele>587.25</ele><time>2026-04-28T13:48:30.86Z</time></trkpt><trkpt lat="39.68548582575243" lon="9.446156576614579"><ele>589.5</ele><time>2026-04-28T13:48:31.86Z</time></trkpt><trkpt lat="39.68560283902992" lon="9.446275534353372"><ele>591.75</ele><time>2026-04-28T13:48:32.86Z</time></trkpt><trkpt lat="39.68572568706311" lon="9.446382227690265"><ele>594.0</ele><time>2026-04-28T13:48:33.86Z</time></trkpt><trkpt lat="39.68585361646028" lon="9.446492771317686"><ele>594.0</ele><time>2026-04-28T13:48:34.86Z</time></trkpt><trkpt lat="39.68598094911259" lon="9.446606149816098"><ele>594.0</ele><time>2026-04-28T13:48:35.86Z</time></trkpt><trkpt lat="39.68609574638642" lon="9.446719786462452"><ele>594.0</ele><time>2026-04-28T13:48:36.86Z</time></trkpt><trkpt lat="39.68618191105167" lon="9.446839475078566"><ele>594.0</ele><time>2026-04-28T13:48:37.86Z</time></trkpt><trkpt lat="39.686246458313505" lon="9.44697534745749"><ele>598.25</ele><time>2026-04-28T13:48:38.86Z</time></trkpt><trkpt lat="39.686289871342886" lon="9.447121864596259"><ele>602.5</ele><time>2026-04-28T13:48:39.86Z</time></trkpt><trkpt lat="39.6863071847171" lon="9.44728844102996"><ele>606.75</ele><time>2026-04-28T13:48:40.86Z</time></trkpt><trkpt lat="39.68632700803533" lon="9.447462500835694"><ele>611.0</ele><time>2026-04-28T13:48:41.86Z</time></trkpt><trkpt lat="39.6863642162362" lon="9.44761357770805"><ele>611.0</ele><time>2026-04-28T13:48:42.86Z</time></trkpt><trkpt lat="39.68642136641864" lon="9.447754789962213"><ele>611.0</ele><time>2026-04-28T13:48:43.86Z</time></trkpt><trkpt lat="39.686496589423356" lon="9.44788155349308"><ele>611.0</ele><time>2026-04-28T13:48:44.86Z</time></trkpt><trkpt lat="39.686589886567624" lon="9.447990897434744"><ele>611.0</ele><time>2026-04-28T13:48:45.86Z</time></trkpt><trkpt lat="39.686703066254736" lon="9.448057444443595"><ele>610.25</ele><time>2026-04-28T13:48:46.86Z</time></trkpt><trkpt lat="39.686815003873406" lon="9.448119445260275"><ele>609.5</ele><time>2026-04-28T13:48:47.86Z</time></trkpt><trkpt lat="39.68693779115431" lon="9.448158071427475"><ele>608.75</ele><time>2026-04-28T13:48:48.86Z</time></trkpt><trkpt lat="39.68706798718064" lon="9.448163975246699"><ele>608.0</ele><time>2026-04-28T13:48:49.86Z</time></trkpt><trkpt lat="39.687193212444306" lon="9.448143465200816"><ele>608.0</ele><time>2026-04-28T13:48:50.86Z</time></trkpt><trkpt lat="39.687321832145074" lon="9.448109972084728"><ele>608.0</ele><time>2026-04-28T13:48:51.86Z</time></trkpt><trkpt lat="39.68745684504056" lon="9.448079741200075"><ele>608.0</ele><time>2026-04-28T13:48:52.86Z</time></trkpt><trkpt lat="39.68758526286497" lon="9.448048328944088"><ele>608.0</ele><time>2026-04-28T13:48:53.86Z</time></trkpt><trkpt lat="39.68771291391378" lon="9.448028132004943"><ele>611.1999999999999</ele><time>2026-04-28T13:48:54.86Z</time></trkpt><trkpt lat="39.68781012950144" lon="9.448045805331706"><ele>614.4</ele><time>2026-04-28T13:48:55.86Z</time></trkpt><trkpt lat="39.68789045754493" lon="9.448095409071328"><ele>617.5999999999999</ele><time>2026-04-28T13:48:56.86Z</time></trkpt><trkpt lat="39.68795259537235" lon="9.44818347089205"><ele>620.8</ele><time>2026-04-28T13:48:57.86Z</time></trkpt><trkpt lat="39.68797825328779" lon="9.448304232707622"><ele>624.0</ele><time>2026-04-28T13:48:58.86Z</time></trkpt><trkpt lat="39.6879766146653" lon="9.448425111175531"><ele>624.0</ele><time>2026-04-28T13:48:59.86Z</time></trkpt><trkpt lat="39.687940672334726" lon="9.448554766892753"><ele>624.0</ele><time>2026-04-28T13:49:00.86Z</time></trkpt><trkpt lat="39.687851941013285" lon="9.448648383647928"><ele>624.0</ele><time>2026-04-28T13:49:01.86Z</time></trkpt><trkpt lat="39.68776157558429" lon="9.448740579812954"><ele>624.0</ele><time>2026-04-28T13:49:02.86Z</time></trkpt><trkpt lat="39.687666891754084" lon="9.448844553206131"><ele>620.5</ele><time>2026-04-28T13:49:03.86Z</time></trkpt><trkpt lat="39.687574838264815" lon="9.448960827671339"><ele>617.0</ele><time>2026-04-28T13:49:04.86Z</time></trkpt><trkpt lat="39.68749754705348" lon="9.449091037412046"><ele>613.5</ele><time>2026-04-28T13:49:05.86Z</time></trkpt><trkpt lat="39.68743748796124" lon="9.449242771182142"><ele>610.0</ele><time>2026-04-28T13:49:06.86Z</time></trkpt><trkpt lat="39.68739860849626" lon="9.449410410495744"><ele>610.0</ele><time>2026-04-28T13:49:07.86Z</time></trkpt><trkpt lat="39.687402213144274" lon="9.449582008062578"><ele>610.0</ele><time>2026-04-28T13:49:08.86Z</time></trkpt><trkpt lat="39.687394677990994" lon="9.449762712712632"><ele>610.0</ele><time>2026-04-28T13:49:09.86Z</time></trkpt><trkpt lat="39.68745206301958" lon="9.449937876469772"><ele>610.0</ele><time>2026-04-28T13:49:10.86Z</time></trkpt><trkpt lat="39.68751087867929" lon="9.450118478942347"><ele>611.0</ele><time>2026-04-28T13:49:11.86Z</time></trkpt><trkpt lat="39.68758144229294" lon="9.450303222688822"><ele>612.0</ele><time>2026-04-28T13:49:12.86Z</time></trkpt><trkpt lat="39.68765283983708" lon="9.450483723302977"><ele>613.0</ele><time>2026-04-28T13:49:13.86Z</time></trkpt><trkpt lat="39.68772289023939" lon="9.450667458959693"><ele>618.0</ele><time>2026-04-28T13:49:14.86Z</time></trkpt><trkpt lat="39.68779529773643" lon="9.450857957691158"><ele>623.0</ele><time>2026-04-28T13:49:15.86Z</time></trkpt><trkpt lat="39.6878721500597" lon="9.451051839379115"><ele>628.0</ele><time>2026-04-28T13:49:16.86Z</time></trkpt><trkpt lat="39.68794852459446" lon="9.451239195013512"><ele>627.25</ele><time>2026-04-28T13:49:17.86Z</time></trkpt><trkpt lat="39.68801593060834" lon="9.451421488536957"><ele>626.5</ele><time>2026-04-28T13:49:18.86Z</time></trkpt><trkpt lat="39.68806261284142" lon="9.451599384823796"><ele>625.75</ele><time>2026-04-28T13:49:19.86Z</time></trkpt><trkpt lat="39.688083907911896" lon="9.451766735611239"><ele>625.0</ele><time>2026-04-28T13:49:20.86Z</time></trkpt><trkpt lat="39.688076927758885" lon="9.451913348614044"><ele>625.0</ele><time>2026-04-28T13:49:21.86Z</time></trkpt><trkpt lat="39.68804204532504" lon="9.452047173674526"><ele>625.0</ele><time>2026-04-28T13:49:22.86Z</time></trkpt><trkpt lat="39.68796223676594" lon="9.452157949596545"><ele>625.0</ele><time>2026-04-28T13:49:23.86Z</time></trkpt><trkpt lat="39.68788427847617" lon="9.45227766544973"><ele>625.0</ele><time>2026-04-28T13:49:24.86Z</time></trkpt><trkpt lat="39.68781150515033" lon="9.452412491432762"><ele>625.25</ele><time>2026-04-28T13:49:25.86Z</time></trkpt><trkpt lat="39.68778179442227" lon="9.452564843867517"><ele>625.5</ele><time>2026-04-28T13:49:26.86Z</time></trkpt><trkpt lat="39.68775156561" lon="9.452724659755079"><ele>625.75</ele><time>2026-04-28T13:49:27.86Z</time></trkpt><trkpt lat="39.687746212243525" lon="9.452890736078606"><ele>626.0</ele><time>2026-04-28T13:49:28.86Z</time></trkpt><trkpt lat="39.68776467992404" lon="9.453059851424692"><ele>626.0</ele><time>2026-04-28T13:49:29.86Z</time></trkpt><trkpt lat="39.68781311213223" lon="9.453218372064214"><ele>626.0</ele><time>2026-04-28T13:49:30.86Z</time></trkpt><trkpt lat="39.68789161065372" lon="9.45336738611453"><ele>626.0</ele><time>2026-04-28T13:49:31.86Z</time></trkpt><trkpt lat="39.68798840399167" lon="9.45349954324823"><ele>626.0</ele><time>2026-04-28T13:49:32.86Z</time></trkpt><trkpt lat="39.68808826899605" lon="9.453624094007315"><ele>626.0</ele><time>2026-04-28T13:49:33.86Z</time></trkpt><trkpt lat="39.68817413864935" lon="9.453759968830525"><ele>626.0</ele><time>2026-04-28T13:49:34.86Z</time></trkpt><trkpt lat="39.68823588986197" lon="9.453913422820893"><ele>626.0</ele><time>2026-04-28T13:49:35.86Z</time></trkpt><trkpt lat="39.6882728255792" lon="9.45408492277409"><ele>626.0</ele><time>2026-04-28T13:49:36.86Z</time></trkpt><trkpt lat="39.68828461841908" lon="9.454263803792822"><ele>624.0</ele><time>2026-04-28T13:49:37.86Z</time></trkpt><trkpt lat="39.6882500297366" lon="9.454433174971305"><ele>622.0</ele><time>2026-04-28T13:49:38.86Z</time></trkpt><trkpt lat="39.68823818263591" lon="9.454605470562692"><ele>620.0</ele><time>2026-04-28T13:49:39.86Z</time></trkpt><trkpt lat="39.688257119987405" lon="9.45477382159137"><ele>618.0</ele><time>2026-04-28T13:49:40.86Z</time></trkpt><trkpt lat="39.68830251795447" lon="9.454940949716303"><ele>617.25</ele><time>2026-04-28T13:49:41.86Z</time></trkpt><trkpt lat="39.68836778487022" lon="9.455090426919336"><ele>616.5</ele><time>2026-04-28T13:49:42.86Z</time></trkpt><trkpt lat="39.6884709159451" lon="9.455201520032045"><ele>615.75</ele><time>2026-04-28T13:49:43.86Z</time></trkpt><trkpt lat="39.68857481919519" lon="9.45530358693451"><ele>615.0</ele><time>2026-04-28T13:49:44.86Z</time></trkpt><trkpt lat="39.68869843105658" lon="9.455375634685677"><ele>617.0</ele><time>2026-04-28T13:49:45.86Z</time></trkpt><trkpt lat="39.68882659326378" lon="9.455416052855995"><ele>619.0</ele><time>2026-04-28T13:49:46.86Z</time></trkpt><trkpt lat="39.68897160615261" lon="9.45543147127202"><ele>621.0</ele><time>2026-04-28T13:49:47.86Z</time></trkpt><trkpt lat="39.68912515452894" lon="9.455428165366948"><ele>623.0</ele><time>2026-04-28T13:49:48.86Z</time></trkpt><trkpt lat="39.689292079771704" lon="9.455413231764672"><ele>624.0</ele><time>2026-04-28T13:49:49.86Z</time></trkpt><trkpt lat="39.68946825184531" lon="9.455406734085459"><ele>625.0</ele><time>2026-04-28T13:49:50.86Z</time></trkpt><trkpt lat="39.689648020013074" lon="9.455401066119654"><ele>626.0</ele><time>2026-04-28T13:49:51.86Z</time></trkpt><trkpt lat="39.68981991197142" lon="9.455393150718482"><ele>626.0</ele><time>2026-04-28T13:49:52.86Z</time></trkpt><trkpt lat="39.68998656260632" lon="9.455394270345229"><ele>626.0</ele><time>2026-04-28T13:49:53.86Z</time></trkpt><trkpt lat="39.69014042116844" lon="9.455392618866018"><ele>626.0</ele><time>2026-04-28T13:49:54.86Z</time></trkpt><trkpt lat="39.69027590719774" lon="9.455409227029724"><ele>626.0</ele><time>2026-04-28T13:49:55.86Z</time></trkpt><trkpt lat="39.69039275108712" lon="9.455429527734609"><ele>626.0</ele><time>2026-04-28T13:49:56.86Z</time></trkpt><trkpt lat="39.690498064802156" lon="9.455486070726197"><ele>626.0</ele><time>2026-04-28T13:49:57.86Z</time></trkpt><trkpt lat="39.69059266488648" lon="9.455568438622947"><ele>626.0</ele><time>2026-04-28T13:49:58.859Z</time></trkpt><trkpt lat="39.6906658859788" lon="9.455687176105744"><ele>625.5</ele><time>2026-04-28T13:49:59.859Z</time></trkpt><trkpt lat="39.69071516926113" lon="9.455825294478544"><ele>625.0</ele><time>2026-04-28T13:50:00.859Z</time></trkpt><trkpt lat="39.69073928556394" lon="9.455980999062088"><ele>624.5</ele><time>2026-04-28T13:50:01.858Z</time></trkpt><trkpt lat="39.690730032404154" lon="9.456139969166774"><ele>624.0</ele><time>2026-04-28T13:50:02.858Z</time></trkpt><trkpt lat="39.690681853789826" lon="9.456283350558673"><ele>624.4</ele><time>2026-04-28T13:50:03.858Z</time></trkpt><trkpt lat="39.69064767147517" lon="9.45642987261232"><ele>624.8</ele><time>2026-04-28T13:50:04.858Z</time></trkpt><trkpt lat="39.69063388471149" lon="9.456572545883333"><ele>625.2</ele><time>2026-04-28T13:50:05.859Z</time></trkpt><trkpt lat="39.69066001089687" lon="9.456703030870003"><ele>625.6</ele><time>2026-04-28T13:50:06.859Z</time></trkpt><trkpt lat="39.690700858958124" lon="9.456839191008013"><ele>626.0</ele><time>2026-04-28T13:50:07.859Z</time></trkpt><trkpt lat="39.69076224055214" lon="9.45696294478412"><ele>626.0</ele><time>2026-04-28T13:50:08.859Z</time></trkpt><trkpt lat="39.69084859429755" lon="9.457071804039277"><ele>626.0</ele><time>2026-04-28T13:50:09.859Z</time></trkpt><trkpt lat="39.690952528817014" lon="9.45715878488863"><ele>626.0</ele><time>2026-04-28T13:50:10.859Z</time></trkpt><trkpt lat="39.69107771507135" lon="9.457232480841745"><ele>626.0</ele><time>2026-04-28T13:50:11.858Z</time></trkpt><trkpt lat="39.691212591057955" lon="9.457300379098077"><ele>625.6666666666666</ele><time>2026-04-28T13:50:12.858Z</time></trkpt><trkpt lat="39.69135428184267" lon="9.457367650074799"><ele>625.3333333333334</ele><time>2026-04-28T13:50:13.858Z</time></trkpt><trkpt lat="39.69150233827953" lon="9.457425887659703"><ele>625.0</ele><time>2026-04-28T13:50:14.858Z</time></trkpt><trkpt lat="39.691651194911216" lon="9.457466713036185"><ele>625.0</ele><time>2026-04-28T13:50:15.858Z</time></trkpt><trkpt lat="39.69178069949585" lon="9.45749844092326"><ele>625.0</ele><time>2026-04-28T13:50:16.858Z</time></trkpt><trkpt lat="39.691881101501" lon="9.457546223021463"><ele>625.0</ele><time>2026-04-28T13:50:17.858Z</time></trkpt><trkpt lat="39.69195735394605" lon="9.45761923338736"><ele>625.0</ele><time>2026-04-28T13:50:18.858Z</time></trkpt><trkpt lat="39.69200455326607" lon="9.4577102671116"><ele>625.0</ele><time>2026-04-28T13:50:19.858Z</time></trkpt><trkpt lat="39.69202083230898" lon="9.457820846120992"><ele>625.2</ele><time>2026-04-28T13:50:20.858Z</time></trkpt><trkpt lat="39.69200284275305" lon="9.457935635374932"><ele>625.4</ele><time>2026-04-28T13:50:21.858Z</time></trkpt><trkpt lat="39.69195793508156" lon="9.458036210130734"><ele>625.6</ele><time>2026-04-28T13:50:22.858Z</time></trkpt><trkpt lat="39.69188493997602" lon="9.458112465884307"><ele>625.8</ele><time>2026-04-28T13:50:23.858Z</time></trkpt><trkpt lat="39.69178701693584" lon="9.458152367426507"><ele>626.0</ele><time>2026-04-28T13:50:24.858Z</time></trkpt><trkpt lat="39.69167203622187" lon="9.458136110758273"><ele>626.0</ele><time>2026-04-28T13:50:25.858Z</time></trkpt><trkpt lat="39.691547248832535" lon="9.458107704240945"><ele>626.0</ele><time>2026-04-28T13:50:26.858Z</time></trkpt><trkpt lat="39.69141277773534" lon="9.458085844883204"><ele>626.0</ele><time>2026-04-28T13:50:27.858Z</time></trkpt><trkpt lat="39.691265029552724" lon="9.458078824428187"><ele>626.0</ele><time>2026-04-28T13:50:28.858Z</time></trkpt><trkpt lat="39.691116116227576" lon="9.458077602081246"><ele>626.6666666666666</ele><time>2026-04-28T13:50:29.858Z</time></trkpt><trkpt lat="39.690965156153105" lon="9.458078416370979"><ele>627.3333333333334</ele><time>2026-04-28T13:50:30.858Z</time></trkpt><trkpt lat="39.690815698319554" lon="9.458079995511424"><ele>628.0</ele><time>2026-04-28T13:50:31.858Z</time></trkpt><trkpt lat="39.69066397808375" lon="9.458102901367276"><ele>628.0</ele><time>2026-04-28T13:50:32.858Z</time></trkpt><trkpt lat="39.690510590641246" lon="9.45810163504577"><ele>628.0</ele><time>2026-04-28T13:50:33.858Z</time></trkpt><trkpt lat="39.690353365028216" lon="9.458103630726884"><ele>628.0</ele><time>2026-04-28T13:50:34.858Z</time></trkpt><trkpt lat="39.69020629482652" lon="9.458088363086185"><ele>627.75</ele><time>2026-04-28T13:50:35.858Z</time></trkpt><trkpt lat="39.69007462906073" lon="9.458119700512489"><ele>627.5</ele><time>2026-04-28T13:50:36.858Z</time></trkpt><trkpt lat="39.68995601801979" lon="9.458176907395043"><ele>627.25</ele><time>2026-04-28T13:50:37.858Z</time></trkpt><trkpt lat="39.68984460454332" lon="9.458262283234443"><ele>627.0</ele><time>2026-04-28T13:50:38.859Z</time></trkpt><trkpt lat="39.68974537485332" lon="9.458369670139282"><ele>627.0</ele><time>2026-04-28T13:50:39.859Z</time></trkpt><trkpt lat="39.68965929843195" lon="9.458509650758533"><ele>627.0</ele><time>2026-04-28T13:50:40.859Z</time></trkpt><trkpt lat="39.68959506303258" lon="9.45866229539404"><ele>627.0</ele><time>2026-04-28T13:50:41.859Z</time></trkpt><trkpt lat="39.68955133754086" lon="9.458827646047641"><ele>627.0</ele><time>2026-04-28T13:50:42.859Z</time></trkpt><trkpt lat="39.68953112098338" lon="9.459021956324673"><ele>626.0</ele><time>2026-04-28T13:50:43.859Z</time></trkpt><trkpt lat="39.68955473851393" lon="9.459207151026098"><ele>625.0</ele><time>2026-04-28T13:50:44.859Z</time></trkpt><trkpt lat="39.68958544840273" lon="9.459384001514499"><ele>624.0</ele><time>2026-04-28T13:50:45.859Z</time></trkpt><trkpt lat="39.689642394662" lon="9.459548146746126"><ele>623.0</ele><time>2026-04-28T13:50:46.859Z</time></trkpt><trkpt lat="39.68972625500003" lon="9.4596996832994"><ele>623.0</ele><time>2026-04-28T13:50:47.859Z</time></trkpt><trkpt lat="39.68982027710051" lon="9.459835255156651"><ele>623.0</ele><time>2026-04-28T13:50:48.859Z</time></trkpt><trkpt lat="39.68993463533355" lon="9.459940381181582"><ele>623.0</ele><time>2026-04-28T13:50:49.859Z</time></trkpt><trkpt lat="39.69005705979698" lon="9.460020190206066"><ele>623.0</ele><time>2026-04-28T13:50:50.859Z</time></trkpt><trkpt lat="39.69018026866701" lon="9.460078766114822"><ele>624.8</ele><time>2026-04-28T13:50:51.859Z</time></trkpt><trkpt lat="39.690282665467876" lon="9.460122829048162"><ele>626.5999999999999</ele><time>2026-04-28T13:50:52.859Z</time></trkpt><trkpt lat="39.69035134719089" lon="9.460201106833019"><ele>628.4000000000001</ele><time>2026-04-28T13:50:53.859Z</time></trkpt><trkpt lat="39.69041975933795" lon="9.460292085853297"><ele>630.2</ele><time>2026-04-28T13:50:54.859Z</time></trkpt><trkpt lat="39.69046049264822" lon="9.460417042819454"><ele>632.0</ele><time>2026-04-28T13:50:55.859Z</time></trkpt><trkpt lat="39.69046269061306" lon="9.460564221037492"><ele>632.0</ele><time>2026-04-28T13:50:56.859Z</time></trkpt><trkpt lat="39.69043784799352" lon="9.460691291620206"><ele>632.0</ele><time>2026-04-28T13:50:57.859Z</time></trkpt><trkpt lat="39.69036876950044" lon="9.460803238597931"><ele>632.0</ele><time>2026-04-28T13:50:58.859Z</time></trkpt><trkpt lat="39.69028766597514" lon="9.460901549028181"><ele>632.0</ele><time>2026-04-28T13:50:59.859Z</time></trkpt><trkpt lat="39.690177865967314" lon="9.46092508764035"><ele>632.0</ele><time>2026-04-28T13:51:00.859Z</time></trkpt><trkpt lat="39.69005302739777" lon="9.460976743690464"><ele>630.0</ele><time>2026-04-28T13:51:01.859Z</time></trkpt><trkpt lat="39.68992827937087" lon="9.461026725644361"><ele>628.0</ele><time>2026-04-28T13:51:02.859Z</time></trkpt><trkpt lat="39.689807374655935" lon="9.461086835177765"><ele>626.0</ele><time>2026-04-28T13:51:03.859Z</time></trkpt><trkpt lat="39.68967391143389" lon="9.461139066706068"><ele>624.0</ele><time>2026-04-28T13:51:04.859Z</time></trkpt><trkpt lat="39.68954954688506" lon="9.461200176910696"><ele>624.0</ele><time>2026-04-28T13:51:05.859Z</time></trkpt><trkpt lat="39.68944568121702" lon="9.461281360754528"><ele>624.0</ele><time>2026-04-28T13:51:06.859Z</time></trkpt><trkpt lat="39.68935773370813" lon="9.461389088657203"><ele>624.0</ele><time>2026-04-28T13:51:07.859Z</time></trkpt><trkpt lat="39.68929993900397" lon="9.461507870058488"><ele>624.0</ele><time>2026-04-28T13:51:08.859Z</time></trkpt><trkpt lat="39.689268903837664" lon="9.461644344494093"><ele>624.75</ele><time>2026-04-28T13:51:09.859Z</time></trkpt><trkpt lat="39.68927201675854" lon="9.461793089900004"><ele>625.5</ele><time>2026-04-28T13:51:10.859Z</time></trkpt><trkpt lat="39.6892972427496" lon="9.461955069869205"><ele>626.25</ele><time>2026-04-28T13:51:11.859Z</time></trkpt><trkpt lat="39.689334185489415" lon="9.462125393878472"><ele>627.0</ele><time>2026-04-28T13:51:12.859Z</time></trkpt><trkpt lat="39.68938062111683" lon="9.462306031864005"><ele>629.0</ele><time>2026-04-28T13:51:13.859Z</time></trkpt><trkpt lat="39.68942993978213" lon="9.462495545876468"><ele>631.0</ele><time>2026-04-28T13:51:14.859Z</time></trkpt><trkpt lat="39.689474896728235" lon="9.462647018263866"><ele>633.0</ele><time>2026-04-28T13:51:15.859Z</time></trkpt><trkpt lat="39.689512877295655" lon="9.462889955862574"><ele>632.0</ele><time>2026-04-28T13:51:16.859Z</time></trkpt><trkpt lat="39.68959197030262" lon="9.463084012627222"><ele>631.0</ele><time>2026-04-28T13:51:17.859Z</time></trkpt><trkpt lat="39.689689863261044" lon="9.463267882927507"><ele>630.0</ele><time>2026-04-28T13:51:18.859Z</time></trkpt><trkpt lat="39.68980349275641" lon="9.46344018404244"><ele>630.0</ele><time>2026-04-28T13:51:19.859Z</time></trkpt><trkpt lat="39.689938691779574" lon="9.463596601093203"><ele>630.0</ele><time>2026-04-28T13:51:20.859Z</time></trkpt><trkpt lat="39.69009106515562" lon="9.463738121688456"><ele>630.0</ele><time>2026-04-28T13:51:21.859Z</time></trkpt><trkpt lat="39.690252296472586" lon="9.463868336000099"><ele>630.3333333333334</ele><time>2026-04-28T13:51:22.859Z</time></trkpt><trkpt lat="39.6904175120722" lon="9.464007070234514"><ele>630.6666666666667</ele><time>2026-04-28T13:51:23.859Z</time></trkpt><trkpt lat="39.69058019816127" lon="9.464143244175816"><ele>631.0</ele><time>2026-04-28T13:51:24.859Z</time></trkpt><trkpt lat="39.69073775726372" lon="9.46428963657265"><ele>631.0</ele><time>2026-04-28T13:51:25.859Z</time></trkpt><trkpt lat="39.69089384726331" lon="9.46442662238961"><ele>631.0</ele><time>2026-04-28T13:51:26.859Z</time></trkpt><trkpt lat="39.6910466593654" lon="9.464575112147761"><ele>631.0</ele><time>2026-04-28T13:51:27.859Z</time></trkpt><trkpt lat="39.69120720900827" lon="9.464713611768845"><ele>633.3333333333334</ele><time>2026-04-28T13:51:28.859Z</time></trkpt><trkpt lat="39.69136464562202" lon="9.464847152635702"><ele>635.6666666666666</ele><time>2026-04-28T13:51:29.859Z</time></trkpt><trkpt lat="39.691517785245416" lon="9.464987401909994"><ele>638.0</ele><time>2026-04-28T13:51:30.859Z</time></trkpt><trkpt lat="39.691670105690456" lon="9.465127430468995"><ele>638.0</ele><time>2026-04-28T13:51:31.859Z</time></trkpt><trkpt lat="39.691821439140554" lon="9.465272178988812"><ele>638.0</ele><time>2026-04-28T13:51:32.859Z</time></trkpt><trkpt lat="39.69197498204161" lon="9.465420248448957"><ele>638.0</ele><time>2026-04-28T13:51:33.859Z</time></trkpt><trkpt lat="39.69212284980206" lon="9.465568819069286"><ele>638.6666666666666</ele><time>2026-04-28T13:51:34.859Z</time></trkpt><trkpt lat="39.69227722552875" lon="9.465727715277264"><ele>639.3333333333334</ele><time>2026-04-28T13:51:35.859Z</time></trkpt><trkpt lat="39.69242763714318" lon="9.465891525372204"><ele>640.0</ele><time>2026-04-28T13:51:36.859Z</time></trkpt><trkpt lat="39.69257940582037" lon="9.466063202659551"><ele>640.0</ele><time>2026-04-28T13:51:37.859Z</time></trkpt><trkpt lat="39.692734442267856" lon="9.466234160271279"><ele>640.0</ele><time>2026-04-28T13:51:38.859Z</time></trkpt><trkpt lat="39.69289583329786" lon="9.466406288642075"><ele>640.0</ele><time>2026-04-28T13:51:39.859Z</time></trkpt><trkpt lat="39.69305838980972" lon="9.466575605147211"><ele>641.0</ele><time>2026-04-28T13:51:40.859Z</time></trkpt><trkpt lat="39.69321472664136" lon="9.466747509423818"><ele>642.0</ele><time>2026-04-28T13:51:41.859Z</time></trkpt><trkpt lat="39.69337375019108" lon="9.466919321958168"><ele>643.0</ele><time>2026-04-28T13:51:42.859Z</time></trkpt><trkpt lat="39.69353227419753" lon="9.467078794220233"><ele>644.0</ele><time>2026-04-28T13:51:43.859Z</time></trkpt><trkpt lat="39.69368725356033" lon="9.467220490522589"><ele>645.0</ele><time>2026-04-28T13:51:44.859Z</time></trkpt><trkpt lat="39.693848068273724" lon="9.467346900060758"><ele>646.0</ele><time>2026-04-28T13:51:45.859Z</time></trkpt><trkpt lat="39.69401692827491" lon="9.467444811439577"><ele>646.0</ele><time>2026-04-28T13:51:46.859Z</time></trkpt><trkpt lat="39.69419660330711" lon="9.46752997880403"><ele>646.0</ele><time>2026-04-28T13:51:47.859Z</time></trkpt><trkpt lat="39.69439129729472" lon="9.467594429354653"><ele>646.0</ele><time>2026-04-28T13:51:48.859Z</time></trkpt><trkpt lat="39.694593201570605" lon="9.467652232313492"><ele>645.3333333333334</ele><time>2026-04-28T13:51:49.859Z</time></trkpt><trkpt lat="39.69480411570789" lon="9.46770932063869"><ele>644.6666666666666</ele><time>2026-04-28T13:51:50.859Z</time></trkpt><trkpt lat="39.695013703825886" lon="9.467768580892429"><ele>644.0</ele><time>2026-04-28T13:51:51.859Z</time></trkpt><trkpt lat="39.69521773625181" lon="9.467831881361247"><ele>644.0</ele><time>2026-04-28T13:51:52.859Z</time></trkpt><trkpt lat="39.69542053856947" lon="9.467898362119639"><ele>644.0</ele><time>2026-04-28T13:51:53.859Z</time></trkpt><trkpt lat="39.69562143256097" lon="9.46796085597949"><ele>644.0</ele><time>2026-04-28T13:51:54.859Z</time></trkpt><trkpt lat="39.695824519734536" lon="9.468018671828478"><ele>642.6666666666666</ele><time>2026-04-28T13:51:55.859Z</time></trkpt><trkpt lat="39.696013977436024" lon="9.468073048557073"><ele>641.3333333333334</ele><time>2026-04-28T13:51:56.859Z</time></trkpt><trkpt lat="39.69619765312064" lon="9.468135256681718"><ele>640.0</ele><time>2026-04-28T13:51:57.859Z</time></trkpt><trkpt lat="39.69636170739082" lon="9.468191582654226"><ele>640.0</ele><time>2026-04-28T13:51:58.859Z</time></trkpt><trkpt lat="39.696515155085166" lon="9.468253209326415"><ele>640.0</ele><time>2026-04-28T13:51:59.859Z</time></trkpt><trkpt lat="39.69664812293355" lon="9.468325899268205"><ele>640.0</ele><time>2026-04-28T13:52:00.859Z</time></trkpt><trkpt lat="39.69677244597126" lon="9.468424694548851"><ele>640.0</ele><time>2026-04-28T13:52:01.859Z</time></trkpt><trkpt lat="39.69689039884322" lon="9.468552287532233"><ele>640.0</ele><time>2026-04-28T13:52:02.859Z</time></trkpt><trkpt lat="39.69699094327377" lon="9.468721754335313"><ele>640.0</ele><time>2026-04-28T13:52:03.859Z</time></trkpt><trkpt lat="39.69708855104328" lon="9.46885532405689"><ele>640.2</ele><time>2026-04-28T13:52:04.858Z</time></trkpt><trkpt lat="39.69715571342978" lon="9.468998054082741"><ele>640.4</ele><time>2026-04-28T13:52:05.858Z</time></trkpt><trkpt lat="39.69717865776984" lon="9.469125253196324"><ele>640.5999999999999</ele><time>2026-04-28T13:52:06.858Z</time></trkpt><trkpt lat="39.6971852702334" lon="9.469247070197452"><ele>640.8</ele><time>2026-04-28T13:52:07.858Z</time></trkpt><trkpt lat="39.69716789057426" lon="9.469370556275313"><ele>641.0</ele><time>2026-04-28T13:52:08.858Z</time></trkpt><trkpt lat="39.6971140168209" lon="9.46947566148614"><ele>641.0</ele><time>2026-04-28T13:52:09.858Z</time></trkpt><trkpt lat="39.69704931002697" lon="9.469591040960808"><ele>641.0</ele><time>2026-04-28T13:52:10.858Z</time></trkpt><trkpt lat="39.6969599166353" lon="9.469710117930909"><ele>641.0</ele><time>2026-04-28T13:52:11.858Z</time></trkpt><trkpt lat="39.6968697118506" lon="9.469840379521296"><ele>641.0</ele><time>2026-04-28T13:52:12.858Z</time></trkpt><trkpt lat="39.69677712615734" lon="9.469978114374385"><ele>641.25</ele><time>2026-04-28T13:52:13.858Z</time></trkpt><trkpt lat="39.696683984486256" lon="9.470117987599991"><ele>641.5</ele><time>2026-04-28T13:52:14.858Z</time></trkpt><trkpt lat="39.69658888198794" lon="9.470251503200242"><ele>641.75</ele><time>2026-04-28T13:52:15.858Z</time></trkpt><trkpt lat="39.69651243876414" lon="9.47037960472761"><ele>642.0</ele><time>2026-04-28T13:52:16.858Z</time></trkpt><trkpt lat="39.69644707879695" lon="9.470525005428154"><ele>645.0</ele><time>2026-04-28T13:52:17.858Z</time></trkpt><trkpt lat="39.69640270399211" lon="9.470675541662812"><ele>648.0</ele><time>2026-04-28T13:52:18.858Z</time></trkpt><trkpt lat="39.6963759109378" lon="9.470831079263686"><ele>651.0</ele><time>2026-04-28T13:52:19.858Z</time></trkpt><trkpt lat="39.696353815921306" lon="9.470992619797425"><ele>654.0</ele><time>2026-04-28T13:52:20.858Z</time></trkpt><trkpt lat="39.69633320273948" lon="9.471165268118291"><ele>655.0</ele><time>2026-04-28T13:52:21.858Z</time></trkpt><trkpt lat="39.696305652187206" lon="9.47134725780447"><ele>656.0</ele><time>2026-04-28T13:52:22.858Z</time></trkpt><trkpt lat="39.69628332689681" lon="9.471524935532377"><ele>657.0</ele><time>2026-04-28T13:52:23.858Z</time></trkpt><trkpt lat="39.696252238662964" lon="9.471682570409852"><ele>658.0</ele><time>2026-04-28T13:52:24.858Z</time></trkpt><trkpt lat="39.69627375368628" lon="9.471822759296895"><ele>658.0</ele><time>2026-04-28T13:52:25.858Z</time></trkpt><trkpt lat="39.696305156068995" lon="9.471949644542297"><ele>658.0</ele><time>2026-04-28T13:52:26.858Z</time></trkpt><trkpt lat="39.69636451753513" lon="9.472062134857001"><ele>658.0</ele><time>2026-04-28T13:52:27.858Z</time></trkpt><trkpt lat="39.69643083801192" lon="9.47214674094114"><ele>658.0</ele><time>2026-04-28T13:52:28.858Z</time></trkpt><trkpt lat="39.69652253562691" lon="9.472195649414664"><ele>658.0</ele><time>2026-04-28T13:52:29.858Z</time></trkpt><trkpt lat="39.69661944344712" lon="9.472232629129305"><ele>657.5</ele><time>2026-04-28T13:52:30.858Z</time></trkpt><trkpt lat="39.69674387718992" lon="9.472263501799702"><ele>657.0</ele><time>2026-04-28T13:52:31.858Z</time></trkpt><trkpt lat="39.69688532359206" lon="9.472293213060128"><ele>656.5</ele><time>2026-04-28T13:52:32.858Z</time></trkpt><trkpt lat="39.697029589045705" lon="9.472325952532003"><ele>656.0</ele><time>2026-04-28T13:52:33.858Z</time></trkpt><trkpt lat="39.69717115897515" lon="9.472364972544185"><ele>658.6666666666666</ele><time>2026-04-28T13:52:34.858Z</time></trkpt><trkpt lat="39.69731894589748" lon="9.472403450466127"><ele>661.3333333333334</ele><time>2026-04-28T13:52:35.858Z</time></trkpt><trkpt lat="39.697473634088496" lon="9.472441665672392"><ele>664.0</ele><time>2026-04-28T13:52:36.858Z</time></trkpt><trkpt lat="39.69762890203654" lon="9.472479797256252"><ele>665.25</ele><time>2026-04-28T13:52:37.858Z</time></trkpt><trkpt lat="39.697780280434436" lon="9.47251807452445"><ele>666.5</ele><time>2026-04-28T13:52:38.858Z</time></trkpt><trkpt lat="39.69792810287462" lon="9.472565478307272"><ele>667.75</ele><time>2026-04-28T13:52:39.858Z</time></trkpt><trkpt lat="39.69805106776944" lon="9.47263018545288"><ele>669.0</ele><time>2026-04-28T13:52:40.858Z</time></trkpt><trkpt lat="39.698169689553765" lon="9.472718472037469"><ele>669.0</ele><time>2026-04-28T13:52:41.858Z</time></trkpt><trkpt lat="39.69827116697205" lon="9.47283998635648"><ele>669.0</ele><time>2026-04-28T13:52:42.858Z</time></trkpt><trkpt lat="39.69835505470396" lon="9.472981525465416"><ele>669.0</ele><time>2026-04-28T13:52:43.858Z</time></trkpt><trkpt lat="39.69842474823105" lon="9.473137600068554"><ele>669.0</ele><time>2026-04-28T13:52:44.858Z</time></trkpt><trkpt lat="39.698492000365164" lon="9.47330735181587"><ele>669.6666666666666</ele><time>2026-04-28T13:52:45.858Z</time></trkpt><trkpt lat="39.69856308679949" lon="9.473490061206213"><ele>670.3333333333333</ele><time>2026-04-28T13:52:46.858Z</time></trkpt><trkpt lat="39.69864394544059" lon="9.473686771597054"><ele>671.0</ele><time>2026-04-28T13:52:47.858Z</time></trkpt><trkpt lat="39.69872875020854" lon="9.473882612566419"><ele>672.0</ele><time>2026-04-28T13:52:48.858Z</time></trkpt><trkpt lat="39.69881423861558" lon="9.474084455190633"><ele>673.0</ele><time>2026-04-28T13:52:49.858Z</time></trkpt><trkpt lat="39.698897354074624" lon="9.47429690203705"><ele>674.0</ele><time>2026-04-28T13:52:50.858Z</time></trkpt><trkpt lat="39.69898356281392" lon="9.474500540123902"><ele>675.3333333333333</ele><time>2026-04-28T13:52:51.858Z</time></trkpt><trkpt lat="39.69907747622824" lon="9.47472082264412"><ele>676.6666666666666</ele><time>2026-04-28T13:52:52.858Z</time></trkpt><trkpt lat="39.69916763254051" lon="9.4749354077838"><ele>678.0</ele><time>2026-04-28T13:52:53.859Z</time></trkpt><trkpt lat="39.699260782654" lon="9.475150708048782"><ele>678.0</ele><time>2026-04-28T13:52:54.859Z</time></trkpt><trkpt lat="39.699354387152205" lon="9.475360384836414"><ele>678.0</ele><time>2026-04-28T13:52:55.859Z</time></trkpt><trkpt lat="39.69946330349181" lon="9.475561076588885"><ele>678.0</ele><time>2026-04-28T13:52:56.859Z</time></trkpt><trkpt lat="39.699585847898476" lon="9.475746653317614"><ele>679.3333333333334</ele><time>2026-04-28T13:52:57.859Z</time></trkpt><trkpt lat="39.69971913688254" lon="9.475921309725859"><ele>680.6666666666667</ele><time>2026-04-28T13:52:58.859Z</time></trkpt><trkpt lat="39.699861800327696" lon="9.476097823795648"><ele>682.0</ele><time>2026-04-28T13:52:59.859Z</time></trkpt><trkpt lat="39.7000048809323" lon="9.47627275324456"><ele>682.3333333333334</ele><time>2026-04-28T13:53:00.859Z</time></trkpt><trkpt lat="39.70014908801924" lon="9.476452066788601"><ele>682.6666666666666</ele><time>2026-04-28T13:53:01.859Z</time></trkpt><trkpt lat="39.700293484269594" lon="9.476634806628457"><ele>683.0</ele><time>2026-04-28T13:53:02.859Z</time></trkpt><trkpt lat="39.70043584320134" lon="9.476820227086256"><ele>684.0</ele><time>2026-04-28T13:53:03.859Z</time></trkpt><trkpt lat="39.70057696010894" lon="9.476996647387548"><ele>685.0</ele><time>2026-04-28T13:53:04.859Z</time></trkpt><trkpt lat="39.7007127893176" lon="9.477166102897755"><ele>686.0</ele><time>2026-04-28T13:53:05.859Z</time></trkpt><trkpt lat="39.70084119359024" lon="9.477333973452918"><ele>686.6666666666666</ele><time>2026-04-28T13:53:06.859Z</time></trkpt><trkpt lat="39.70096361354209" lon="9.477506238351747"><ele>687.3333333333334</ele><time>2026-04-28T13:53:07.859Z</time></trkpt><trkpt lat="39.701080591440196" lon="9.477695847148665"><ele>688.0</ele><time>2026-04-28T13:53:08.859Z</time></trkpt><trkpt lat="39.701186019005476" lon="9.47789438146227"><ele>689.0</ele><time>2026-04-28T13:53:09.859Z</time></trkpt><trkpt lat="39.701293399316725" lon="9.478100698221494"><ele>690.0</ele><time>2026-04-28T13:53:10.859Z</time></trkpt><trkpt lat="39.70140446534806" lon="9.478311871056233"><ele>691.0</ele><time>2026-04-28T13:53:11.859Z</time></trkpt><trkpt lat="39.7015177280008" lon="9.478518530727277"><ele>691.0</ele><time>2026-04-28T13:53:12.859Z</time></trkpt><trkpt lat="39.70162607315243" lon="9.47871766863788"><ele>691.0</ele><time>2026-04-28T13:53:13.859Z</time></trkpt><trkpt lat="39.70173533686369" lon="9.478918150827115"><ele>691.0</ele><time>2026-04-28T13:53:14.859Z</time></trkpt><trkpt lat="39.70184629756544" lon="9.479118246950252"><ele>692.6666666666667</ele><time>2026-04-28T13:53:15.859Z</time></trkpt><trkpt lat="39.701951198360035" lon="9.479314707603203"><ele>694.3333333333334</ele><time>2026-04-28T13:53:16.859Z</time></trkpt><trkpt lat="39.70204331677659" lon="9.47950054520089"><ele>696.0</ele><time>2026-04-28T13:53:17.859Z</time></trkpt><trkpt lat="39.70210632853754" lon="9.47967586771084"><ele>696.5</ele><time>2026-04-28T13:53:18.859Z</time></trkpt><trkpt lat="39.70211770830184" lon="9.47985273775945"><ele>697.0</ele><time>2026-04-28T13:53:19.859Z</time></trkpt><trkpt lat="39.70211457272436" lon="9.480029797103555"><ele>697.5</ele><time>2026-04-28T13:53:20.859Z</time></trkpt><trkpt lat="39.70208284999929" lon="9.480202714191096"><ele>698.0</ele><time>2026-04-28T13:53:21.859Z</time></trkpt><trkpt lat="39.70204422967761" lon="9.480390848790938"><ele>697.6666666666666</ele><time>2026-04-28T13:53:22.859Z</time></trkpt><trkpt lat="39.7020043005879" lon="9.480593010520575"><ele>697.3333333333334</ele><time>2026-04-28T13:53:23.859Z</time></trkpt><trkpt lat="39.70197553280804" lon="9.480809310184831"><ele>697.0</ele><time>2026-04-28T13:53:24.859Z</time></trkpt><trkpt lat="39.701931602202244" lon="9.481031864658132"><ele>697.0</ele><time>2026-04-28T13:53:25.859Z</time></trkpt><trkpt lat="39.70188747884886" lon="9.481259802822493"><ele>697.0</ele><time>2026-04-28T13:53:26.859Z</time></trkpt><trkpt lat="39.70184281424862" lon="9.481492928186015"><ele>697.0</ele><time>2026-04-28T13:53:27.859Z</time></trkpt><trkpt lat="39.70179692295184" lon="9.481737478896799"><ele>697.3333333333334</ele><time>2026-04-28T13:53:28.859Z</time></trkpt><trkpt lat="39.70175219968655" lon="9.481978457781597"><ele>697.6666666666666</ele><time>2026-04-28T13:53:29.859Z</time></trkpt><trkpt lat="39.70170539732889" lon="9.482224058874019"><ele>698.0</ele><time>2026-04-28T13:53:30.859Z</time></trkpt><trkpt lat="39.701659765975506" lon="9.482478945906452"><ele>699.0</ele><time>2026-04-28T13:53:31.859Z</time></trkpt><trkpt lat="39.701614342529915" lon="9.482740015414542"><ele>700.0</ele><time>2026-04-28T13:53:32.859Z</time></trkpt><trkpt lat="39.701574179100604" lon="9.482996964151145"><ele>701.0</ele><time>2026-04-28T13:53:33.859Z</time></trkpt><trkpt lat="39.70153345367454" lon="9.483259070996954"><ele>701.3333333333333</ele><time>2026-04-28T13:53:34.859Z</time></trkpt><trkpt lat="39.701474666390695" lon="9.483516644511297"><ele>701.6666666666666</ele><time>2026-04-28T13:53:35.859Z</time></trkpt><trkpt lat="39.701448853400436" lon="9.483785133713628"><ele>702.0</ele><time>2026-04-28T13:53:36.859Z</time></trkpt><trkpt lat="39.70140641188835" lon="9.484045198865317"><ele>702.6666666666666</ele><time>2026-04-28T13:53:37.859Z</time></trkpt><trkpt lat="39.70134881076201" lon="9.484304949236206"><ele>703.3333333333333</ele><time>2026-04-28T13:53:38.859Z</time></trkpt><trkpt lat="39.70132126752866" lon="9.484569287504177"><ele>704.0</ele><time>2026-04-28T13:53:39.859Z</time></trkpt><trkpt lat="39.701281637587165" lon="9.484814680286455"><ele>704.0</ele><time>2026-04-28T13:53:40.859Z</time></trkpt><trkpt lat="39.701242820588504" lon="9.485053834065548"><ele>704.0</ele><time>2026-04-28T13:53:41.859Z</time></trkpt><trkpt lat="39.701191990959146" lon="9.485268820188882"><ele>704.0</ele><time>2026-04-28T13:53:42.859Z</time></trkpt><trkpt lat="39.70116312303361" lon="9.485469095271872"><ele>702.5</ele><time>2026-04-28T13:53:43.859Z</time></trkpt><trkpt lat="39.70115190481416" lon="9.485656680070953"><ele>701.0</ele><time>2026-04-28T13:53:44.859Z</time></trkpt><trkpt lat="39.70117713469141" lon="9.485827982699687"><ele>699.5</ele><time>2026-04-28T13:53:45.859Z</time></trkpt><trkpt lat="39.70120531341672" lon="9.486004641963861"><ele>698.0</ele><time>2026-04-28T13:53:46.859Z</time></trkpt><trkpt lat="39.70126037086412" lon="9.486185127051302"><ele>697.0</ele><time>2026-04-28T13:53:47.859Z</time></trkpt><trkpt lat="39.70132011888346" lon="9.486373271391054"><ele>696.0</ele><time>2026-04-28T13:53:48.859Z</time></trkpt><trkpt lat="39.70137499567557" lon="9.486568390623313"><ele>695.0</ele><time>2026-04-28T13:53:49.859Z</time></trkpt><trkpt lat="39.701402357968476" lon="9.486769367028408"><ele>695.0</ele><time>2026-04-28T13:53:50.859Z</time></trkpt><trkpt lat="39.70140467202785" lon="9.486967911296542"><ele>695.0</ele><time>2026-04-28T13:53:51.859Z</time></trkpt><trkpt lat="39.70136585851904" lon="9.487170463664695"><ele>695.0</ele><time>2026-04-28T13:53:52.859Z</time></trkpt><trkpt lat="39.70135575576935" lon="9.487386723214268"><ele>696.3333333333333</ele><time>2026-04-28T13:53:53.859Z</time></trkpt><trkpt lat="39.7013239319743" lon="9.487610833819453"><ele>697.6666666666666</ele><time>2026-04-28T13:53:54.859Z</time></trkpt><trkpt lat="39.70129903516736" lon="9.487834659318773"><ele>699.0</ele><time>2026-04-28T13:53:55.859Z</time></trkpt><trkpt lat="39.70127403692513" lon="9.488051888349741"><ele>702.75</ele><time>2026-04-28T13:53:56.859Z</time></trkpt><trkpt lat="39.7012502191667" lon="9.48826646365044"><ele>706.5</ele><time>2026-04-28T13:53:57.859Z</time></trkpt><trkpt lat="39.70122988763051" lon="9.488450803917377"><ele>710.25</ele><time>2026-04-28T13:53:58.859Z</time></trkpt><trkpt lat="39.70120777681372" lon="9.488614048489957"><ele>714.0</ele><time>2026-04-28T13:53:59.859Z</time></trkpt><trkpt lat="39.701174966737334" lon="9.488751828536119"><ele>714.2</ele><time>2026-04-28T13:54:00.859Z</time></trkpt><trkpt lat="39.701122335451814" lon="9.488855399506773"><ele>714.4000000000001</ele><time>2026-04-28T13:54:01.859Z</time></trkpt><trkpt lat="39.70104926800189" lon="9.488940669067546"><ele>714.6</ele><time>2026-04-28T13:54:02.859Z</time></trkpt><trkpt lat="39.7009550042886" lon="9.48899785834632"><ele>714.8</ele><time>2026-04-28T13:54:03.859Z</time></trkpt><trkpt lat="39.700845529881434" lon="9.48901409717631"><ele>715.0</ele><time>2026-04-28T13:54:04.859Z</time></trkpt><trkpt lat="39.70071844304082" lon="9.489001964581488"><ele>715.0</ele><time>2026-04-28T13:54:05.859Z</time></trkpt><trkpt lat="39.70057565914952" lon="9.488972734993977"><ele>715.0</ele><time>2026-04-28T13:54:06.859Z</time></trkpt><trkpt lat="39.70042973530145" lon="9.488941040728065"><ele>715.0</ele><time>2026-04-28T13:54:07.859Z</time></trkpt><trkpt lat="39.70029352726697" lon="9.488923668652498"><ele>715.0</ele><time>2026-04-28T13:54:08.859Z</time></trkpt><trkpt lat="39.70017115872961" lon="9.488929428668117"><ele>714.5</ele><time>2026-04-28T13:54:09.859Z</time></trkpt><trkpt lat="39.70003656633271" lon="9.488954432010095"><ele>714.0</ele><time>2026-04-28T13:54:10.858Z</time></trkpt><trkpt lat="39.699902913499336" lon="9.489009698238833"><ele>713.5</ele><time>2026-04-28T13:54:11.857Z</time></trkpt><trkpt lat="39.69977244316136" lon="9.489089508225607"><ele>713.0</ele><time>2026-04-28T13:54:12.857Z</time></trkpt><trkpt lat="39.69964133400594" lon="9.489180397134689"><ele>713.0</ele><time>2026-04-28T13:54:13.857Z</time></trkpt><trkpt lat="39.69951805898096" lon="9.489274525234984"><ele>713.0</ele><time>2026-04-28T13:54:14.857Z</time></trkpt><trkpt lat="39.69940395122357" lon="9.489373918602324"><ele>713.0</ele><time>2026-04-28T13:54:15.857Z</time></trkpt><trkpt lat="39.6992990353989" lon="9.489464498449944"><ele>713.0</ele><time>2026-04-28T13:54:16.857Z</time></trkpt><trkpt lat="39.699223117827636" lon="9.489589483147686"><ele>713.0</ele><time>2026-04-28T13:54:17.857Z</time></trkpt><trkpt lat="39.69918716408534" lon="9.489740211392315"><ele>713.0</ele><time>2026-04-28T13:54:18.857Z</time></trkpt><trkpt lat="39.699158897213096" lon="9.489886335266492"><ele>713.0</ele><time>2026-04-28T13:54:19.857Z</time></trkpt><trkpt lat="39.69914412756732" lon="9.490041429957481"><ele>713.0</ele><time>2026-04-28T13:54:20.856Z</time></trkpt><trkpt lat="39.69913075728963" lon="9.490199835939913"><ele>713.0</ele><time>2026-04-28T13:54:21.856Z</time></trkpt><trkpt lat="39.69910229544609" lon="9.490358859690048"><ele>713.0</ele><time>2026-04-28T13:54:22.856Z</time></trkpt><trkpt lat="39.6990568092434" lon="9.490514542122723"><ele>713.0</ele><time>2026-04-28T13:54:23.857Z</time></trkpt><trkpt lat="39.69898834658178" lon="9.490657536010763"><ele>713.0</ele><time>2026-04-28T13:54:24.857Z</time></trkpt><trkpt lat="39.6989014964029" lon="9.490790302968136"><ele>715.25</ele><time>2026-04-28T13:54:25.857Z</time></trkpt><trkpt lat="39.69880931865002" lon="9.490915795330807"><ele>717.5</ele><time>2026-04-28T13:54:26.857Z</time></trkpt><trkpt lat="39.69872068674434" lon="9.491019952175272"><ele>719.75</ele><time>2026-04-28T13:54:27.857Z</time></trkpt><trkpt lat="39.69866761098337" lon="9.491150245789333"><ele>722.0</ele><time>2026-04-28T13:54:28.857Z</time></trkpt><trkpt lat="39.69864390238447" lon="9.491286206426295"><ele>723.0</ele><time>2026-04-28T13:54:29.857Z</time></trkpt><trkpt lat="39.69866713405809" lon="9.491418012512428"><ele>724.0</ele><time>2026-04-28T13:54:30.857Z</time></trkpt><trkpt lat="39.69869631433059" lon="9.491534760266546"><ele>725.0</ele><time>2026-04-28T13:54:31.857Z</time></trkpt><trkpt lat="39.698751412285795" lon="9.49164129345223"><ele>726.0</ele><time>2026-04-28T13:54:32.857Z</time></trkpt><trkpt lat="39.69882968531369" lon="9.491727327956314"><ele>727.0</ele><time>2026-04-28T13:54:33.857Z</time></trkpt><trkpt lat="39.698916279875135" lon="9.4917862220576"><ele>727.0</ele><time>2026-04-28T13:54:34.857Z</time></trkpt><trkpt lat="39.69901815199955" lon="9.491813847472258"><ele>727.0</ele><time>2026-04-28T13:54:35.857Z</time></trkpt><trkpt lat="39.69912689667952" lon="9.49181178570518"><ele>727.0</ele><time>2026-04-28T13:54:36.857Z</time></trkpt><trkpt lat="39.69924319978093" lon="9.491787516615522"><ele>727.0</ele><time>2026-04-28T13:54:37.857Z</time></trkpt><trkpt lat="39.69936957057214" lon="9.49175301094348"><ele>729.0</ele><time>2026-04-28T13:54:38.857Z</time></trkpt><trkpt lat="39.699506654588305" lon="9.491730330131446"><ele>731.0</ele><time>2026-04-28T13:54:39.857Z</time></trkpt><trkpt lat="39.699650485502715" lon="9.491727518017116"><ele>733.0</ele><time>2026-04-28T13:54:40.858Z</time></trkpt><trkpt lat="39.6997918825224" lon="9.49175221124203"><ele>735.0</ele><time>2026-04-28T13:54:41.858Z</time></trkpt><trkpt lat="39.699931055473144" lon="9.491792813215818"><ele>735.0</ele><time>2026-04-28T13:54:42.858Z</time></trkpt><trkpt lat="39.70007498195036" lon="9.491839859272147"><ele>735.0</ele><time>2026-04-28T13:54:43.858Z</time></trkpt><trkpt lat="39.70022082975017" lon="9.49187150981332"><ele>735.0</ele><time>2026-04-28T13:54:44.858Z</time></trkpt><trkpt lat="39.70037333246983" lon="9.491886742273612"><ele>735.0</ele><time>2026-04-28T13:54:45.858Z</time></trkpt><trkpt lat="39.70052444415324" lon="9.491880485371658"><ele>737.0</ele><time>2026-04-28T13:54:46.858Z</time></trkpt><trkpt lat="39.70067934491766" lon="9.491855920305879"><ele>739.0</ele><time>2026-04-28T13:54:47.858Z</time></trkpt><trkpt lat="39.700835145360195" lon="9.491830335397326"><ele>741.0</ele><time>2026-04-28T13:54:48.858Z</time></trkpt><trkpt lat="39.70097935164591" lon="9.491806847231663"><ele>744.25</ele><time>2026-04-28T13:54:49.858Z</time></trkpt><trkpt lat="39.701119209354644" lon="9.491793691657179"><ele>747.5</ele><time>2026-04-28T13:54:50.858Z</time></trkpt><trkpt lat="39.7012569942224" lon="9.491810538369492"><ele>750.75</ele><time>2026-04-28T13:54:51.858Z</time></trkpt><trkpt lat="39.70139082112981" lon="9.491853873629433"><ele>754.0</ele><time>2026-04-28T13:54:52.858Z</time></trkpt><trkpt lat="39.70150298520642" lon="9.491921098056574"><ele>754.0</ele><time>2026-04-28T13:54:53.858Z</time></trkpt><trkpt lat="39.701601870695676" lon="9.492016730533308"><ele>754.0</ele><time>2026-04-28T13:54:54.858Z</time></trkpt><trkpt lat="39.70168729457182" lon="9.492135637760516"><ele>754.0</ele><time>2026-04-28T13:54:55.858Z</time></trkpt><trkpt lat="39.70176118036663" lon="9.492280139453465"><ele>754.0</ele><time>2026-04-28T13:54:56.858Z</time></trkpt><trkpt lat="39.70181787267032" lon="9.49244337793463"><ele>754.75</ele><time>2026-04-28T13:54:57.858Z</time></trkpt><trkpt lat="39.70186053266175" lon="9.492619104201967"><ele>755.5</ele><time>2026-04-28T13:54:58.858Z</time></trkpt><trkpt lat="39.70189454075981" lon="9.492803156268828"><ele>756.25</ele><time>2026-04-28T13:54:59.858Z</time></trkpt><trkpt lat="39.70191833633809" lon="9.493001743997192"><ele>757.0</ele><time>2026-04-28T13:55:00.858Z</time></trkpt><trkpt lat="39.70194038713858" lon="9.493208330626807"><ele>757.0</ele><time>2026-04-28T13:55:01.858Z</time></trkpt><trkpt lat="39.70196667562212" lon="9.493423228443088"><ele>757.0</ele><time>2026-04-28T13:55:02.858Z</time></trkpt><trkpt lat="39.70198485707613" lon="9.493639809878221"><ele>757.0</ele><time>2026-04-28T13:55:03.858Z</time></trkpt><trkpt lat="39.70199315056965" lon="9.493865478037444"><ele>759.6666666666667</ele><time>2026-04-28T13:55:04.858Z</time></trkpt><trkpt lat="39.70198912411778" lon="9.494088886671504"><ele>762.3333333333334</ele><time>2026-04-28T13:55:05.858Z</time></trkpt><trkpt lat="39.70197747631412" lon="9.494316722143697"><ele>765.0</ele><time>2026-04-28T13:55:06.858Z</time></trkpt><trkpt lat="39.701959924800576" lon="9.494542596381939"><ele>766.3333333333333</ele><time>2026-04-28T13:55:07.858Z</time></trkpt><trkpt lat="39.7019394378496" lon="9.494768582474943"><ele>767.6666666666666</ele><time>2026-04-28T13:55:08.858Z</time></trkpt><trkpt lat="39.70191895174796" lon="9.494983958565006"><ele>769.0</ele><time>2026-04-28T13:55:09.858Z</time></trkpt><trkpt lat="39.70190539755401" lon="9.495181788807647"><ele>767.5</ele><time>2026-04-28T13:55:10.858Z</time></trkpt><trkpt lat="39.70190732826766" lon="9.49535526336418"><ele>766.0</ele><time>2026-04-28T13:55:11.858Z</time></trkpt><trkpt lat="39.70192993674572" lon="9.495504530045698"><ele>764.5</ele><time>2026-04-28T13:55:12.858Z</time></trkpt><trkpt lat="39.70197479692451" lon="9.495639156116493"><ele>763.0</ele><time>2026-04-28T13:55:13.858Z</time></trkpt><trkpt lat="39.70204288110921" lon="9.495757224047646"><ele>763.0</ele><time>2026-04-28T13:55:14.858Z</time></trkpt><trkpt lat="39.702134472699406" lon="9.495852919817464"><ele>763.0</ele><time>2026-04-28T13:55:15.858Z</time></trkpt><trkpt lat="39.70224396107395" lon="9.495937898180763"><ele>763.0</ele><time>2026-04-28T13:55:16.858Z</time></trkpt><trkpt lat="39.702360775449286" lon="9.495998747222666"><ele>763.0</ele><time>2026-04-28T13:55:17.858Z</time></trkpt><trkpt lat="39.70248062251786" lon="9.496061351306727"><ele>763.0</ele><time>2026-04-28T13:55:18.858Z</time></trkpt><trkpt lat="39.70258446402988" lon="9.496149806354666"><ele>763.0</ele><time>2026-04-28T13:55:19.858Z</time></trkpt><trkpt lat="39.70266982877113" lon="9.496265690733434"><ele>763.0</ele><time>2026-04-28T13:55:20.858Z</time></trkpt><trkpt lat="39.70273009244161" lon="9.496396926731927"><ele>763.0</ele><time>2026-04-28T13:55:21.858Z</time></trkpt><trkpt lat="39.70272796227436" lon="9.496551724286165"><ele>763.0</ele><time>2026-04-28T13:55:22.858Z</time></trkpt><trkpt lat="39.70274335462213" lon="9.496718388861684"><ele>763.0</ele><time>2026-04-28T13:55:23.858Z</time></trkpt><trkpt lat="39.70275901239161" lon="9.496889187660761"><ele>763.0</ele><time>2026-04-28T13:55:24.858Z</time></trkpt><trkpt lat="39.70278032323267" lon="9.497051526144567"><ele>763.0</ele><time>2026-04-28T13:55:25.858Z</time></trkpt><trkpt lat="39.7028097097327" lon="9.497210649296228"><ele>763.0</ele><time>2026-04-28T13:55:26.858Z</time></trkpt><trkpt lat="39.70285796616857" lon="9.497370077947327"><ele>763.0</ele><time>2026-04-28T13:55:27.858Z</time></trkpt><trkpt lat="39.702921094032014" lon="9.497531661056666"><ele>763.0</ele><time>2026-04-28T13:55:28.858Z</time></trkpt><trkpt lat="39.70299036947651" lon="9.497694797866496"><ele>763.0</ele><time>2026-04-28T13:55:29.858Z</time></trkpt><trkpt lat="39.70306770224555" lon="9.49784002172819"><ele>763.5</ele><time>2026-04-28T13:55:30.858Z</time></trkpt><trkpt lat="39.70311769896669" lon="9.497989145035504"><ele>764.0</ele><time>2026-04-28T13:55:31.858Z</time></trkpt><trkpt lat="39.70314789837909" lon="9.498136329562852"><ele>764.5</ele><time>2026-04-28T13:55:32.858Z</time></trkpt><trkpt lat="39.70314799351873" lon="9.498287407280234"><ele>765.0</ele><time>2026-04-28T13:55:33.858Z</time></trkpt><trkpt lat="39.703118882998936" lon="9.498433394400177"><ele>765.0</ele><time>2026-04-28T13:55:34.858Z</time></trkpt><trkpt lat="39.70306332197882" lon="9.498565554627138"><ele>765.0</ele><time>2026-04-28T13:55:35.858Z</time></trkpt><trkpt lat="39.70297051127572" lon="9.498655693457298"><ele>765.0</ele><time>2026-04-28T13:55:36.858Z</time></trkpt><trkpt lat="39.70287134554359" lon="9.498737128357327"><ele>765.0</ele><time>2026-04-28T13:55:37.858Z</time></trkpt><trkpt lat="39.702760189218886" lon="9.498775226214049"><ele>766.0</ele><time>2026-04-28T13:55:38.858Z</time></trkpt><trkpt lat="39.70263522561682" lon="9.498807574704111"><ele>767.0</ele><time>2026-04-28T13:55:39.858Z</time></trkpt><trkpt lat="39.702508429797234" lon="9.49883860652925"><ele>768.0</ele><time>2026-04-28T13:55:40.858Z</time></trkpt><trkpt lat="39.7023797455614" lon="9.498870100646311"><ele>769.0</ele><time>2026-04-28T13:55:41.858Z</time></trkpt><trkpt lat="39.70225020671385" lon="9.49890219034228"><ele>769.0</ele><time>2026-04-28T13:55:42.858Z</time></trkpt><trkpt lat="39.70210776075684" lon="9.498951378902488"><ele>769.0</ele><time>2026-04-28T13:55:43.858Z</time></trkpt><trkpt lat="39.70197426676387" lon="9.499032650518211"><ele>769.0</ele><time>2026-04-28T13:55:44.858Z</time></trkpt><trkpt lat="39.70185066947628" lon="9.499124594686409"><ele>769.0</ele><time>2026-04-28T13:55:45.858Z</time></trkpt><trkpt lat="39.70173394667037" lon="9.49923253056397"><ele>769.75</ele><time>2026-04-28T13:55:46.858Z</time></trkpt><trkpt lat="39.701612267165025" lon="9.499324456323984"><ele>770.5</ele><time>2026-04-28T13:55:47.858Z</time></trkpt><trkpt lat="39.70149531326339" lon="9.499415591445324"><ele>771.25</ele><time>2026-04-28T13:55:48.858Z</time></trkpt><trkpt lat="39.70137819209397" lon="9.499487938255612"><ele>772.0</ele><time>2026-04-28T13:55:49.858Z</time></trkpt><trkpt lat="39.70128537678222" lon="9.499590959888712"><ele>772.0</ele><time>2026-04-28T13:55:50.858Z</time></trkpt><trkpt lat="39.70122159447152" lon="9.49970785504593"><ele>772.0</ele><time>2026-04-28T13:55:51.858Z</time></trkpt><trkpt lat="39.701174456750906" lon="9.499836958022422"><ele>772.0</ele><time>2026-04-28T13:55:52.858Z</time></trkpt><trkpt lat="39.701153989167274" lon="9.499979159610985"><ele>772.0</ele><time>2026-04-28T13:55:53.858Z</time></trkpt><trkpt lat="39.70114919797515" lon="9.500121876067235"><ele>772.0</ele><time>2026-04-28T13:55:54.858Z</time></trkpt><trkpt lat="39.70117035736401" lon="9.50026662227466"><ele>772.0</ele><time>2026-04-28T13:55:55.858Z</time></trkpt><trkpt lat="39.70123044381129" lon="9.500392577799904"><ele>772.0</ele><time>2026-04-28T13:55:56.858Z</time></trkpt><trkpt lat="39.70129017368341" lon="9.500511807745669"><ele>772.0</ele><time>2026-04-28T13:55:57.858Z</time></trkpt><trkpt lat="39.70136636578703" lon="9.500609438273342"><ele>772.0</ele><time>2026-04-28T13:55:58.858Z</time></trkpt><trkpt lat="39.70145990458507" lon="9.500685495039662"><ele>772.0</ele><time>2026-04-28T13:55:59.858Z</time></trkpt><trkpt lat="39.70157001634935" lon="9.500740646496089"><ele>772.75</ele><time>2026-04-28T13:56:00.858Z</time></trkpt><trkpt lat="39.70169280537177" lon="9.500778269110514"><ele>773.5</ele><time>2026-04-28T13:56:01.858Z</time></trkpt><trkpt lat="39.70181830209232" lon="9.500795380709585"><ele>774.25</ele><time>2026-04-28T13:56:02.858Z</time></trkpt><trkpt lat="39.70194573458393" lon="9.50080257797959"><ele>775.0</ele><time>2026-04-28T13:56:03.858Z</time></trkpt><trkpt lat="39.702079195694076" lon="9.500807319672646"><ele>775.0</ele><time>2026-04-28T13:56:04.858Z</time></trkpt><trkpt lat="39.70220714581198" lon="9.500812568357299"><ele>775.0</ele><time>2026-04-28T13:56:05.858Z</time></trkpt><trkpt lat="39.70233943470563" lon="9.500816998015539"><ele>775.0</ele><time>2026-04-28T13:56:06.858Z</time></trkpt><trkpt lat="39.70247888850271" lon="9.500824800335781"><ele>775.0</ele><time>2026-04-28T13:56:07.858Z</time></trkpt><trkpt lat="39.702623100937345" lon="9.500835935134576"><ele>776.25</ele><time>2026-04-28T13:56:08.858Z</time></trkpt><trkpt lat="39.702767920348144" lon="9.500854462127842"><ele>777.5</ele><time>2026-04-28T13:56:09.858Z</time></trkpt><trkpt lat="39.702914920103744" lon="9.500888449155482"><ele>778.75</ele><time>2026-04-28T13:56:10.858Z</time></trkpt><trkpt lat="39.70306239309592" lon="9.500934279280298"><ele>780.0</ele><time>2026-04-28T13:56:11.858Z</time></trkpt><trkpt lat="39.70321096138729" lon="9.500990756402294"><ele>780.0</ele><time>2026-04-28T13:56:12.858Z</time></trkpt><trkpt lat="39.70336706139434" lon="9.501047419189533"><ele>780.0</ele><time>2026-04-28T13:56:13.858Z</time></trkpt><trkpt lat="39.703513681361" lon="9.501100484151195"><ele>780.0</ele><time>2026-04-28T13:56:14.858Z</time></trkpt><trkpt lat="39.70365635768416" lon="9.501160285776969"><ele>780.5</ele><time>2026-04-28T13:56:15.858Z</time></trkpt><trkpt lat="39.703789802151356" lon="9.501234359493955"><ele>781.0</ele><time>2026-04-28T13:56:16.856Z</time></trkpt><trkpt lat="39.70391344910994" lon="9.501322666551557"><ele>781.5</ele><time>2026-04-28T13:56:17.857Z</time></trkpt><trkpt lat="39.70401798616207" lon="9.501438512814019"><ele>782.0</ele><time>2026-04-28T13:56:18.857Z</time></trkpt><trkpt lat="39.70409651805003" lon="9.50159237830518"><ele>782.0</ele><time>2026-04-28T13:56:19.857Z</time></trkpt><trkpt lat="39.704180792838024" lon="9.501748014059581"><ele>782.0</ele><time>2026-04-28T13:56:20.856Z</time></trkpt><trkpt lat="39.70427933857781" lon="9.501897528526385"><ele>782.0</ele><time>2026-04-28T13:56:21.856Z</time></trkpt><trkpt lat="39.70436836124567" lon="9.502072281296032"><ele>782.3333333333334</ele><time>2026-04-28T13:56:22.856Z</time></trkpt><trkpt lat="39.704459461975055" lon="9.502247440908336"><ele>782.6666666666667</ele><time>2026-04-28T13:56:23.856Z</time></trkpt><trkpt lat="39.70456157801297" lon="9.502427816548925"><ele>783.0</ele><time>2026-04-28T13:56:24.856Z</time></trkpt><trkpt lat="39.704663408900686" lon="9.502612489429055"><ele>783.0</ele><time>2026-04-28T13:56:25.856Z</time></trkpt><trkpt lat="39.70476595220779" lon="9.502801716836709"><ele>783.0</ele><time>2026-04-28T13:56:26.856Z</time></trkpt><trkpt lat="39.70486752727733" lon="9.502991633712059"><ele>783.0</ele><time>2026-04-28T13:56:27.856Z</time></trkpt><trkpt lat="39.7049714420886" lon="9.503188129564107"><ele>784.3333333333333</ele><time>2026-04-28T13:56:28.856Z</time></trkpt><trkpt lat="39.70507762969152" lon="9.503382642389615"><ele>785.6666666666666</ele><time>2026-04-28T13:56:29.856Z</time></trkpt><trkpt lat="39.705179675335216" lon="9.50358069814921"><ele>787.0</ele><time>2026-04-28T13:56:30.856Z</time></trkpt><trkpt lat="39.70528637130941" lon="9.503773501370793"><ele>784.3333333333333</ele><time>2026-04-28T13:56:31.856Z</time></trkpt><trkpt lat="39.70539053799003" lon="9.503970945579567"><ele>781.6666666666667</ele><time>2026-04-28T13:56:32.856Z</time></trkpt><trkpt lat="39.705493469789594" lon="9.504163805057535"><ele>779.0</ele><time>2026-04-28T13:56:33.856Z</time></trkpt><trkpt lat="39.705596705162144" lon="9.504356776326347"><ele>779.0</ele><time>2026-04-28T13:56:34.856Z</time></trkpt><trkpt lat="39.7057035601662" lon="9.504556614172342"><ele>779.0</ele><time>2026-04-28T13:56:35.856Z</time></trkpt><trkpt lat="39.70580917119985" lon="9.504757252803403"><ele>779.0</ele><time>2026-04-28T13:56:36.856Z</time></trkpt><trkpt lat="39.705916250541414" lon="9.504955928680344"><ele>779.3333333333334</ele><time>2026-04-28T13:56:37.856Z</time></trkpt><trkpt lat="39.70602081764661" lon="9.50514808920483"><ele>779.6666666666667</ele><time>2026-04-28T13:56:38.856Z</time></trkpt><trkpt lat="39.70611302091948" lon="9.505357910127689"><ele>780.0</ele><time>2026-04-28T13:56:39.856Z</time></trkpt><trkpt lat="39.70622808780577" lon="9.505536239425371"><ele>780.0</ele><time>2026-04-28T13:56:40.856Z</time></trkpt><trkpt lat="39.706321852643384" lon="9.505716667247185"><ele>780.0</ele><time>2026-04-28T13:56:41.856Z</time></trkpt><trkpt lat="39.70641152164114" lon="9.505881239139185"><ele>780.0</ele><time>2026-04-28T13:56:42.856Z</time></trkpt><trkpt lat="39.70650163328635" lon="9.506031950157803"><ele>780.0</ele><time>2026-04-28T13:56:43.856Z</time></trkpt><trkpt lat="39.70659828325835" lon="9.506150619731981"><ele>780.0</ele><time>2026-04-28T13:56:44.856Z</time></trkpt><trkpt lat="39.70669063198377" lon="9.506232006882577"><ele>780.0</ele><time>2026-04-28T13:56:45.856Z</time></trkpt><trkpt lat="39.706787534924885" lon="9.506282516833203"><ele>780.0</ele><time>2026-04-28T13:56:46.856Z</time></trkpt><trkpt lat="39.7068833810594" lon="9.506307643195347"><ele>780.0</ele><time>2026-04-28T13:56:47.856Z</time></trkpt><trkpt lat="39.70699127057938" lon="9.50631322493019"><ele>783.2</ele><time>2026-04-28T13:56:48.856Z</time></trkpt><trkpt lat="39.707087301603266" lon="9.506315394756912"><ele>786.4</ele><time>2026-04-28T13:56:49.856Z</time></trkpt><trkpt lat="39.7071927117293" lon="9.506308070918514"><ele>789.5999999999999</ele><time>2026-04-28T13:56:50.856Z</time></trkpt><trkpt lat="39.70730310558328" lon="9.506291995214827"><ele>792.8</ele><time>2026-04-28T13:56:51.856Z</time></trkpt><trkpt lat="39.707417419599906" lon="9.506278520606896"><ele>796.0</ele><time>2026-04-28T13:56:52.856Z</time></trkpt><trkpt lat="39.70753747501687" lon="9.506265816695931"><ele>796.0</ele><time>2026-04-28T13:56:53.856Z</time></trkpt><trkpt lat="39.7076600710551" lon="9.506250930043388"><ele>796.0</ele><time>2026-04-28T13:56:54.856Z</time></trkpt><trkpt lat="39.707782197357815" lon="9.506234971135711"><ele>796.0</ele><time>2026-04-28T13:56:55.856Z</time></trkpt><trkpt lat="39.70790744878572" lon="9.50622097826542"><ele>796.0</ele><time>2026-04-28T13:56:56.856Z</time></trkpt><trkpt lat="39.70803530022508" lon="9.506212952050811"><ele>797.75</ele><time>2026-04-28T13:56:57.856Z</time></trkpt><trkpt lat="39.708163084406266" lon="9.506215309631163"><ele>799.5</ele><time>2026-04-28T13:56:58.856Z</time></trkpt><trkpt lat="39.70828871226821" lon="9.506230704969335"><ele>801.25</ele><time>2026-04-28T13:56:59.856Z</time></trkpt><trkpt lat="39.70841131879463" lon="9.506257992896895"><ele>803.0</ele><time>2026-04-28T13:57:00.856Z</time></trkpt><trkpt lat="39.70852924275009" lon="9.506299264363657"><ele>801.0</ele><time>2026-04-28T13:57:01.856Z</time></trkpt><trkpt lat="39.70864565201402" lon="9.506358497278606"><ele>799.0</ele><time>2026-04-28T13:57:02.856Z</time></trkpt><trkpt lat="39.70876000844297" lon="9.506437104994196"><ele>797.0</ele><time>2026-04-28T13:57:03.856Z</time></trkpt><trkpt lat="39.708870102304424" lon="9.506538124522608"><ele>795.0</ele><time>2026-04-28T13:57:04.856Z</time></trkpt><trkpt lat="39.70897797616248" lon="9.506655746308248"><ele>795.0</ele><time>2026-04-28T13:57:05.856Z</time></trkpt><trkpt lat="39.70909192080931" lon="9.506774739476395"><ele>795.0</ele><time>2026-04-28T13:57:06.856Z</time></trkpt><trkpt lat="39.70921089254238" lon="9.50688951028729"><ele>795.0</ele><time>2026-04-28T13:57:07.856Z</time></trkpt><trkpt lat="39.70932740374073" lon="9.507008436513827"><ele>795.0</ele><time>2026-04-28T13:57:08.856Z</time></trkpt><trkpt lat="39.70944577366627" lon="9.507128287272764"><ele>796.75</ele><time>2026-04-28T13:57:09.856Z</time></trkpt><trkpt lat="39.70956245164046" lon="9.50723453028896"><ele>798.5</ele><time>2026-04-28T13:57:10.856Z</time></trkpt><trkpt lat="39.70968546820307" lon="9.507322480980717"><ele>800.25</ele><time>2026-04-28T13:57:11.856Z</time></trkpt><trkpt lat="39.70982003865024" lon="9.507394800744107"><ele>802.0</ele><time>2026-04-28T13:57:12.856Z</time></trkpt><trkpt lat="39.709957715480286" lon="9.507446708781039"><ele>802.0</ele><time>2026-04-28T13:57:13.856Z</time></trkpt><trkpt lat="39.71009588993225" lon="9.507476096210395"><ele>802.0</ele><time>2026-04-28T13:57:14.856Z</time></trkpt><trkpt lat="39.71023237657525" lon="9.507479216408322"><ele>802.0</ele><time>2026-04-28T13:57:15.856Z</time></trkpt><trkpt lat="39.71037589970356" lon="9.507456819505487"><ele>802.0</ele><time>2026-04-28T13:57:16.856Z</time></trkpt><trkpt lat="39.71052140885339" lon="9.507417193022635"><ele>802.0</ele><time>2026-04-28T13:57:17.856Z</time></trkpt><trkpt lat="39.71066802425175" lon="9.50735847002467"><ele>802.0</ele><time>2026-04-28T13:57:18.856Z</time></trkpt><trkpt lat="39.710813461974354" lon="9.507288395633942"><ele>802.0</ele><time>2026-04-28T13:57:19.856Z</time></trkpt><trkpt lat="39.71095826434933" lon="9.507216208583715"><ele>801.6666666666666</ele><time>2026-04-28T13:57:20.856Z</time></trkpt><trkpt lat="39.711105542991916" lon="9.507146004939887"><ele>801.3333333333333</ele><time>2026-04-28T13:57:21.856Z</time></trkpt><trkpt lat="39.71124613064014" lon="9.507081232144493"><ele>801.0</ele><time>2026-04-28T13:57:22.856Z</time></trkpt><trkpt lat="39.71138458394707" lon="9.50701572766999"><ele>801.0</ele><time>2026-04-28T13:57:23.856Z</time></trkpt><trkpt lat="39.71151605542372" lon="9.506950899916312"><ele>801.0</ele><time>2026-04-28T13:57:24.856Z</time></trkpt><trkpt lat="39.71164022196138" lon="9.506891912117906"><ele>801.0</ele><time>2026-04-28T13:57:25.856Z</time></trkpt><trkpt lat="39.71175850529298" lon="9.506838593685977"><ele>801.0</ele><time>2026-04-28T13:57:26.856Z</time></trkpt><trkpt lat="39.71187715525998" lon="9.50677839934511"><ele>801.5</ele><time>2026-04-28T13:57:27.856Z</time></trkpt><trkpt lat="39.711999144908525" lon="9.506716507640293"><ele>802.0</ele><time>2026-04-28T13:57:28.856Z</time></trkpt><trkpt lat="39.71212128475556" lon="9.506657771671351"><ele>802.5</ele><time>2026-04-28T13:57:29.856Z</time></trkpt><trkpt lat="39.71224230822533" lon="9.506599089335806"><ele>803.0</ele><time>2026-04-28T13:57:30.856Z</time></trkpt><trkpt lat="39.7123640222631" lon="9.506537287644814"><ele>803.0</ele><time>2026-04-28T13:57:31.856Z</time></trkpt><trkpt lat="39.712490337608806" lon="9.50647374940653"><ele>803.0</ele><time>2026-04-28T13:57:32.857Z</time></trkpt><trkpt lat="39.7126215670062" lon="9.50640755154338"><ele>803.0</ele><time>2026-04-28T13:57:33.857Z</time></trkpt><trkpt lat="39.71276299067279" lon="9.506338844612078"><ele>803.0</ele><time>2026-04-28T13:57:34.857Z</time></trkpt><trkpt lat="39.71291148697278" lon="9.506267977423962"><ele>805.0</ele><time>2026-04-28T13:57:35.857Z</time></trkpt><trkpt lat="39.71306642846542" lon="9.506191680645138"><ele>807.0</ele><time>2026-04-28T13:57:36.857Z</time></trkpt><trkpt lat="39.713225133211346" lon="9.506117562665871"><ele>809.0</ele><time>2026-04-28T13:57:37.857Z</time></trkpt><trkpt lat="39.71338235523849" lon="9.506041690123356"><ele>809.0</ele><time>2026-04-28T13:57:38.857Z</time></trkpt><trkpt lat="39.713546910675205" lon="9.505964239441932"><ele>809.0</ele><time>2026-04-28T13:57:39.857Z</time></trkpt><trkpt lat="39.71370563260185" lon="9.505886083243531"><ele>809.0</ele><time>2026-04-28T13:57:40.857Z</time></trkpt><trkpt lat="39.71386421516416" lon="9.505810385238705"><ele>810.6666666666667</ele><time>2026-04-28T13:57:41.857Z</time></trkpt><trkpt lat="39.71402842541107" lon="9.505731378610292"><ele>812.3333333333333</ele><time>2026-04-28T13:57:42.857Z</time></trkpt><trkpt lat="39.714191897719836" lon="9.505653991348318"><ele>814.0</ele><time>2026-04-28T13:57:43.857Z</time></trkpt><trkpt lat="39.7143537268166" lon="9.50557499051789"><ele>813.3333333333333</ele><time>2026-04-28T13:57:44.857Z</time></trkpt><trkpt lat="39.714518256786434" lon="9.505496608923492"><ele>812.6666666666667</ele><time>2026-04-28T13:57:45.857Z</time></trkpt><trkpt lat="39.714682843362944" lon="9.50541842565835"><ele>812.0</ele><time>2026-04-28T13:57:46.857Z</time></trkpt><trkpt lat="39.71484105320183" lon="9.505348672571293"><ele>814.0</ele><time>2026-04-28T13:57:47.857Z</time></trkpt><trkpt lat="39.714997574505695" lon="9.505270447568545"><ele>816.0</ele><time>2026-04-28T13:57:48.857Z</time></trkpt><trkpt lat="39.71515147963289" lon="9.505185637815671"><ele>818.0</ele><time>2026-04-28T13:57:49.857Z</time></trkpt><trkpt lat="39.715306394018086" lon="9.50508781509011"><ele>818.0</ele><time>2026-04-28T13:57:50.857Z</time></trkpt><trkpt lat="39.71545729724454" lon="9.504980295106197"><ele>818.0</ele><time>2026-04-28T13:57:51.857Z</time></trkpt><trkpt lat="39.71559841821979" lon="9.504864750333969"><ele>818.0</ele><time>2026-04-28T13:57:52.857Z</time></trkpt><trkpt lat="39.71573792131331" lon="9.504738511634907"><ele>818.0</ele><time>2026-04-28T13:57:53.857Z</time></trkpt><trkpt lat="39.71587211948179" lon="9.504603920624783"><ele>818.0</ele><time>2026-04-28T13:57:54.857Z</time></trkpt><trkpt lat="39.716004120827805" lon="9.504460556651091"><ele>818.0</ele><time>2026-04-28T13:57:55.857Z</time></trkpt><trkpt lat="39.71613979802841" lon="9.504317545841317"><ele>819.0</ele><time>2026-04-28T13:57:56.857Z</time></trkpt><trkpt lat="39.716279352031634" lon="9.504173528761935"><ele>820.0</ele><time>2026-04-28T13:57:57.857Z</time></trkpt><trkpt lat="39.71642219369942" lon="9.5040302253681"><ele>821.0</ele><time>2026-04-28T13:57:58.857Z</time></trkpt><trkpt lat="39.716565605978055" lon="9.503890335289931"><ele>821.0</ele><time>2026-04-28T13:57:59.857Z</time></trkpt><trkpt lat="39.71670262267305" lon="9.50374918646065"><ele>821.0</ele><time>2026-04-28T13:58:00.857Z</time></trkpt><trkpt lat="39.716838433315296" lon="9.50361088940694"><ele>821.0</ele><time>2026-04-28T13:58:01.857Z</time></trkpt><trkpt lat="39.71697156238284" lon="9.50347328625131"><ele>822.3333333333334</ele><time>2026-04-28T13:58:02.857Z</time></trkpt><trkpt lat="39.7171068929327" lon="9.503336425613414"><ele>823.6666666666667</ele><time>2026-04-28T13:58:03.857Z</time></trkpt><trkpt lat="39.71724209344723" lon="9.50319457558893"><ele>825.0</ele><time>2026-04-28T13:58:04.857Z</time></trkpt><trkpt lat="39.717382613098806" lon="9.50305302874794"><ele>827.0</ele><time>2026-04-28T13:58:05.857Z</time></trkpt><trkpt lat="39.71752592047758" lon="9.502906510139793"><ele>829.0</ele><time>2026-04-28T13:58:06.857Z</time></trkpt><trkpt lat="39.717671126484326" lon="9.502755179297761"><ele>831.0</ele><time>2026-04-28T13:58:07.857Z</time></trkpt><trkpt lat="39.71781503360241" lon="9.502602110430624"><ele>831.0</ele><time>2026-04-28T13:58:08.857Z</time></trkpt><trkpt lat="39.71795737387194" lon="9.502448537943696"><ele>831.0</ele><time>2026-04-28T13:58:09.857Z</time></trkpt><trkpt lat="39.718096904418665" lon="9.502298304035014"><ele>831.0</ele><time>2026-04-28T13:58:10.857Z</time></trkpt><trkpt lat="39.718232918136536" lon="9.50215389441132"><ele>832.6666666666667</ele><time>2026-04-28T13:58:11.857Z</time></trkpt><trkpt lat="39.718369082058274" lon="9.502012925764626"><ele>834.3333333333334</ele><time>2026-04-28T13:58:12.857Z</time></trkpt><trkpt lat="39.7185113136229" lon="9.501868962219229"><ele>836.0</ele><time>2026-04-28T13:58:13.857Z</time></trkpt><trkpt lat="39.718650801472634" lon="9.50173103394348"><ele>832.6666666666667</ele><time>2026-04-28T13:58:14.857Z</time></trkpt><trkpt lat="39.71878701121355" lon="9.501596142892009"><ele>829.3333333333333</ele><time>2026-04-28T13:58:15.857Z</time></trkpt><trkpt lat="39.71891312425169" lon="9.501465825731044"><ele>826.0</ele><time>2026-04-28T13:58:16.857Z</time></trkpt><trkpt lat="39.71903667071981" lon="9.501343841034396"><ele>830.0</ele><time>2026-04-28T13:58:17.857Z</time></trkpt><trkpt lat="39.719157195930244" lon="9.501221631273276"><ele>834.0</ele><time>2026-04-28T13:58:18.857Z</time></trkpt><trkpt lat="39.71927695550896" lon="9.501095769851291"><ele>838.0</ele><time>2026-04-28T13:58:19.857Z</time></trkpt><trkpt lat="39.71938586897905" lon="9.500971772927192"><ele>835.75</ele><time>2026-04-28T13:58:20.857Z</time></trkpt><trkpt lat="39.71948215295275" lon="9.500836771689597"><ele>833.5</ele><time>2026-04-28T13:58:21.857Z</time></trkpt><trkpt lat="39.71956712822946" lon="9.500683609236058"><ele>831.25</ele><time>2026-04-28T13:58:22.856Z</time></trkpt><trkpt lat="39.71964068320019" lon="9.500515364469418"><ele>829.0</ele><time>2026-04-28T13:58:23.856Z</time></trkpt><trkpt lat="39.719708214840836" lon="9.500334189773962"><ele>829.0</ele><time>2026-04-28T13:58:24.856Z</time></trkpt><trkpt lat="39.71977316032808" lon="9.500145357601957"><ele>829.0</ele><time>2026-04-28T13:58:25.856Z</time></trkpt><trkpt lat="39.71984398150916" lon="9.499944091132345"><ele>829.0</ele><time>2026-04-28T13:58:26.856Z</time></trkpt><trkpt lat="39.71991957734371" lon="9.499736044371915"><ele>831.0</ele><time>2026-04-28T13:58:27.856Z</time></trkpt><trkpt lat="39.719993251942796" lon="9.499529956781204"><ele>833.0</ele><time>2026-04-28T13:58:28.856Z</time></trkpt><trkpt lat="39.720073692055735" lon="9.499333579426711"><ele>835.0</ele><time>2026-04-28T13:58:29.856Z</time></trkpt><trkpt lat="39.720144799957396" lon="9.499144805632426"><ele>835.0</ele><time>2026-04-28T13:58:30.856Z</time></trkpt><trkpt lat="39.72021928386557" lon="9.498943693902309"><ele>835.0</ele><time>2026-04-28T13:58:31.856Z</time></trkpt><trkpt lat="39.72029645981323" lon="9.498734967796706"><ele>835.0</ele><time>2026-04-28T13:58:32.856Z</time></trkpt><trkpt lat="39.72036948078899" lon="9.498535890598774"><ele>834.6666666666666</ele><time>2026-04-28T13:58:33.856Z</time></trkpt><trkpt lat="39.72043790416965" lon="9.498353741340615"><ele>834.3333333333333</ele><time>2026-04-28T13:58:34.857Z</time></trkpt><trkpt lat="39.72050914250369" lon="9.498179653139625"><ele>834.0</ele><time>2026-04-28T13:58:35.857Z</time></trkpt><trkpt lat="39.720596149297926" lon="9.49802071500373"><ele>834.0</ele><time>2026-04-28T13:58:36.857Z</time></trkpt><trkpt lat="39.720701046560606" lon="9.497882192613988"><ele>834.0</ele><time>2026-04-28T13:58:37.857Z</time></trkpt><trkpt lat="39.72082410549764" lon="9.497757069884273"><ele>834.0</ele><time>2026-04-28T13:58:38.857Z</time></trkpt><trkpt lat="39.72095684900744" lon="9.497637264690649"><ele>836.0</ele><time>2026-04-28T13:58:39.857Z</time></trkpt><trkpt lat="39.72109650178855" lon="9.497513711553612"><ele>838.0</ele><time>2026-04-28T13:58:40.857Z</time></trkpt><trkpt lat="39.72123692846117" lon="9.497381172668721"><ele>840.0</ele><time>2026-04-28T13:58:41.857Z</time></trkpt><trkpt lat="39.72137796231705" lon="9.497248376233385"><ele>840.0</ele><time>2026-04-28T13:58:42.857Z</time></trkpt><trkpt lat="39.72151875744234" lon="9.497115090421092"><ele>840.0</ele><time>2026-04-28T13:58:43.857Z</time></trkpt><trkpt lat="39.72165528338008" lon="9.496983372028467"><ele>840.0</ele><time>2026-04-28T13:58:44.857Z</time></trkpt><trkpt lat="39.721790927646" lon="9.496852957388361"><ele>842.3333333333333</ele><time>2026-04-28T13:58:45.857Z</time></trkpt><trkpt lat="39.721926603722686" lon="9.49672340737018"><ele>844.6666666666666</ele><time>2026-04-28T13:58:46.857Z</time></trkpt><trkpt lat="39.72206642278997" lon="9.49659524156962"><ele>847.0</ele><time>2026-04-28T13:58:47.857Z</time></trkpt><trkpt lat="39.722209974544825" lon="9.496462875579958"><ele>847.0</ele><time>2026-04-28T13:58:48.857Z</time></trkpt><trkpt lat="39.72235456476969" lon="9.496329051615266"><ele>847.0</ele><time>2026-04-28T13:58:49.857Z</time></trkpt><trkpt lat="39.72249566847812" lon="9.496201716556163"><ele>847.0</ele><time>2026-04-28T13:58:50.857Z</time></trkpt><trkpt lat="39.722636032143214" lon="9.496071587234475"><ele>847.0</ele><time>2026-04-28T13:58:51.857Z</time></trkpt><trkpt lat="39.72277086143264" lon="9.495944253931983"><ele>847.0</ele><time>2026-04-28T13:58:52.857Z</time></trkpt><trkpt lat="39.72289691884281" lon="9.495829412964005"><ele>847.0</ele><time>2026-04-28T13:58:53.857Z</time></trkpt><trkpt lat="39.723016343604115" lon="9.495722686354322"><ele>847.0</ele><time>2026-04-28T13:58:54.857Z</time></trkpt><trkpt lat="39.72313113076242" lon="9.495628961175022"><ele>847.0</ele><time>2026-04-28T13:58:55.857Z</time></trkpt><trkpt lat="39.72325082451125" lon="9.495555812531983"><ele>847.0</ele><time>2026-04-28T13:58:56.857Z</time></trkpt><trkpt lat="39.723373179368664" lon="9.495499125252794"><ele>847.0</ele><time>2026-04-28T13:58:57.857Z</time></trkpt><trkpt lat="39.723496273743436" lon="9.495463592480323"><ele>846.5</ele><time>2026-04-28T13:58:58.857Z</time></trkpt><trkpt lat="39.72362422094233" lon="9.495452026914982"><ele>846.0</ele><time>2026-04-28T13:58:59.857Z</time></trkpt><trkpt lat="39.72375386873057" lon="9.495457018954275"><ele>845.5</ele><time>2026-04-28T13:59:00.857Z</time></trkpt><trkpt lat="39.72388827732399" lon="9.495481417139455"><ele>845.0</ele><time>2026-04-28T13:59:01.857Z</time></trkpt><trkpt lat="39.72402813099601" lon="9.495522606809601"><ele>845.0</ele><time>2026-04-28T13:59:02.857Z</time></trkpt><trkpt lat="39.724158634774945" lon="9.495589921078093"><ele>845.0</ele><time>2026-04-28T13:59:03.857Z</time></trkpt><trkpt lat="39.724278035739744" lon="9.495676643551976"><ele>845.0</ele><time>2026-04-28T13:59:04.857Z</time></trkpt><trkpt lat="39.72438942384446" lon="9.49578132523518"><ele>845.0</ele><time>2026-04-28T13:59:05.857Z</time></trkpt><trkpt lat="39.72448930960381" lon="9.495901301415707"><ele>844.0</ele><time>2026-04-28T13:59:06.857Z</time></trkpt><trkpt lat="39.724583640276926" lon="9.496034779621027"><ele>843.0</ele><time>2026-04-28T13:59:07.857Z</time></trkpt><trkpt lat="39.7246842060607" lon="9.49616820824068"><ele>842.0</ele><time>2026-04-28T13:59:08.857Z</time></trkpt><trkpt lat="39.72478873092989" lon="9.496304553727047"><ele>841.0</ele><time>2026-04-28T13:59:09.857Z</time></trkpt><trkpt lat="39.72489516072348" lon="9.49644022629128"><ele>841.0</ele><time>2026-04-28T13:59:10.857Z</time></trkpt><trkpt lat="39.72500053885893" lon="9.496577656985714"><ele>841.0</ele><time>2026-04-28T13:59:11.857Z</time></trkpt><trkpt lat="39.72511001107927" lon="9.496715605647804"><ele>841.0</ele><time>2026-04-28T13:59:12.857Z</time></trkpt><trkpt lat="39.72521286438905" lon="9.496851431682583"><ele>841.0</ele><time>2026-04-28T13:59:13.857Z</time></trkpt><trkpt lat="39.725315234614136" lon="9.496981290657613"><ele>840.5</ele><time>2026-04-28T13:59:14.857Z</time></trkpt><trkpt lat="39.725417493232825" lon="9.497100869152137"><ele>840.0</ele><time>2026-04-28T13:59:15.857Z</time></trkpt><trkpt lat="39.72552601276128" lon="9.497209019081847"><ele>839.5</ele><time>2026-04-28T13:59:16.857Z</time></trkpt><trkpt lat="39.72564357774979" lon="9.497298083698931"><ele>839.0</ele><time>2026-04-28T13:59:17.857Z</time></trkpt><trkpt lat="39.725774907003554" lon="9.497365863391293"><ele>839.0</ele><time>2026-04-28T13:59:18.857Z</time></trkpt><trkpt lat="39.725913779044966" lon="9.49741456432816"><ele>839.0</ele><time>2026-04-28T13:59:19.857Z</time></trkpt><trkpt lat="39.726056753688695" lon="9.497450342502022"><ele>839.0</ele><time>2026-04-28T13:59:20.857Z</time></trkpt><trkpt lat="39.72620757390798" lon="9.497478596995343"><ele>839.0</ele><time>2026-04-28T13:59:21.857Z</time></trkpt><trkpt lat="39.72636334621158" lon="9.49750823718104"><ele>839.0</ele><time>2026-04-28T13:59:22.857Z</time></trkpt><trkpt lat="39.726518965397624" lon="9.497541757501413"><ele>839.0</ele><time>2026-04-28T13:59:23.857Z</time></trkpt><trkpt lat="39.726673315987746" lon="9.497577416073486"><ele>839.0</ele><time>2026-04-28T13:59:24.857Z</time></trkpt><trkpt lat="39.726823691785114" lon="9.497611930055179"><ele>838.75</ele><time>2026-04-28T13:59:25.857Z</time></trkpt><trkpt lat="39.726977253585325" lon="9.497645860847827"><ele>838.5</ele><time>2026-04-28T13:59:26.857Z</time></trkpt><trkpt lat="39.72712202484795" lon="9.497676080882052"><ele>838.25</ele><time>2026-04-28T13:59:27.857Z</time></trkpt><trkpt lat="39.72725809331673" lon="9.49771277122172"><ele>838.0</ele><time>2026-04-28T13:59:28.857Z</time></trkpt><trkpt lat="39.72738335986517" lon="9.497771772113463"><ele>838.0</ele><time>2026-04-28T13:59:29.857Z</time></trkpt><trkpt lat="39.72749099844551" lon="9.49785517009528"><ele>838.0</ele><time>2026-04-28T13:59:30.857Z</time></trkpt><trkpt lat="39.72758040660778" lon="9.497959888351435"><ele>838.0</ele><time>2026-04-28T13:59:31.857Z</time></trkpt><trkpt lat="39.72764897657177" lon="9.498080105818818"><ele>838.0</ele><time>2026-04-28T13:59:32.857Z</time></trkpt><trkpt lat="39.72770224835378" lon="9.498212854736193"><ele>837.75</ele><time>2026-04-28T13:59:33.857Z</time></trkpt><trkpt lat="39.7277413615947" lon="9.4983601927179"><ele>837.5</ele><time>2026-04-28T13:59:34.857Z</time></trkpt><trkpt lat="39.72776662014428" lon="9.498532330589113"><ele>837.25</ele><time>2026-04-28T13:59:35.857Z</time></trkpt><trkpt lat="39.72778945172962" lon="9.49871559112863"><ele>837.0</ele><time>2026-04-28T13:59:36.857Z</time></trkpt><trkpt lat="39.727803899420756" lon="9.498895379759672"><ele>836.5</ele><time>2026-04-28T13:59:37.857Z</time></trkpt><trkpt lat="39.72782254747123" lon="9.49907723909294"><ele>836.0</ele><time>2026-04-28T13:59:38.857Z</time></trkpt><trkpt lat="39.727848086113866" lon="9.499254071879045"><ele>835.5</ele><time>2026-04-28T13:59:39.857Z</time></trkpt><trkpt lat="39.727883507656024" lon="9.499431017848677"><ele>835.0</ele><time>2026-04-28T13:59:40.857Z</time></trkpt><trkpt lat="39.72791506259199" lon="9.499607055963912"><ele>834.25</ele><time>2026-04-28T13:59:41.857Z</time></trkpt><trkpt lat="39.727942841591464" lon="9.499781130992773"><ele>833.5</ele><time>2026-04-28T13:59:42.858Z</time></trkpt><trkpt lat="39.727958430335704" lon="9.49995053258923"><ele>832.75</ele><time>2026-04-28T13:59:43.858Z</time></trkpt><trkpt lat="39.7279771891733" lon="9.500117542402082"><ele>832.0</ele><time>2026-04-28T13:59:44.858Z</time></trkpt><trkpt lat="39.72800131237202" lon="9.500291524336333"><ele>831.25</ele><time>2026-04-28T13:59:45.858Z</time></trkpt><trkpt lat="39.72802600443079" lon="9.500458779729549"><ele>830.5</ele><time>2026-04-28T13:59:46.858Z</time></trkpt><trkpt lat="39.72805265076212" lon="9.500618296475333"><ele>829.75</ele><time>2026-04-28T13:59:47.858Z</time></trkpt><trkpt lat="39.72807806999625" lon="9.500771501804987"><ele>829.0</ele><time>2026-04-28T13:59:48.858Z</time></trkpt><trkpt lat="39.72811239850558" lon="9.500934501401048"><ele>829.0</ele><time>2026-04-28T13:59:49.858Z</time></trkpt><trkpt lat="39.72816059065783" lon="9.501092626613604"><ele>829.0</ele><time>2026-04-28T13:59:50.858Z</time></trkpt><trkpt lat="39.72822486735019" lon="9.501261492124808"><ele>829.0</ele><time>2026-04-28T13:59:51.858Z</time></trkpt><trkpt lat="39.72832854090924" lon="9.501367924170587"><ele>829.0</ele><time>2026-04-28T13:59:52.858Z</time></trkpt><trkpt lat="39.72843411236102" lon="9.501442137448601"><ele>827.25</ele><time>2026-04-28T13:59:53.858Z</time></trkpt><trkpt lat="39.72853920354326" lon="9.501497450266616"><ele>825.5</ele><time>2026-04-28T13:59:54.858Z</time></trkpt><trkpt lat="39.728635733203596" lon="9.501506558235645"><ele>823.75</ele><time>2026-04-28T13:59:55.858Z</time></trkpt><trkpt lat="39.728811503782865" lon="9.50149253752845"><ele>822.0</ele><time>2026-04-28T13:59:57.858Z</time></trkpt><trkpt lat="39.72893830549954" lon="9.5014562518411"><ele>820.5</ele><time>2026-04-28T13:59:58.858Z</time></trkpt><trkpt lat="39.72906113975809" lon="9.501416546362464"><ele>819.0</ele><time>2026-04-28T13:59:59.858Z</time></trkpt><trkpt lat="39.729183547499055" lon="9.50137799656521"><ele>817.5</ele><time>2026-04-28T14:00:00.858Z</time></trkpt><trkpt lat="39.72931498917797" lon="9.50134023991439"><ele>816.0</ele><time>2026-04-28T14:00:01.858Z</time></trkpt><trkpt lat="39.72945237527264" lon="9.501307313779122"><ele>815.5</ele><time>2026-04-28T14:00:02.858Z</time></trkpt><trkpt lat="39.72959277153689" lon="9.501274455812911"><ele>815.0</ele><time>2026-04-28T14:00:03.858Z</time></trkpt><trkpt lat="39.729735399176896" lon="9.501240028030567"><ele>814.5</ele><time>2026-04-28T14:00:04.858Z</time></trkpt><trkpt lat="39.729872652723095" lon="9.50120914617763"><ele>814.0</ele><time>2026-04-28T14:00:05.858Z</time></trkpt><trkpt lat="39.73001014817046" lon="9.501192468511766"><ele>814.0</ele><time>2026-04-28T14:00:06.858Z</time></trkpt><trkpt lat="39.73015351211698" lon="9.501198493773876"><ele>814.0</ele><time>2026-04-28T14:00:07.858Z</time></trkpt><trkpt lat="39.73029789400302" lon="9.501225384561597"><ele>814.0</ele><time>2026-04-28T14:00:08.858Z</time></trkpt><trkpt lat="39.73043963994806" lon="9.501267410484472"><ele>814.0</ele><time>2026-04-28T14:00:09.858Z</time></trkpt><trkpt lat="39.7305717597798" lon="9.501356145275626"><ele>814.5</ele><time>2026-04-28T14:00:10.858Z</time></trkpt><trkpt lat="39.73071543194022" lon="9.501411810900068"><ele>815.0</ele><time>2026-04-28T14:00:11.858Z</time></trkpt><trkpt lat="39.73085168980549" lon="9.50149033000281"><ele>815.5</ele><time>2026-04-28T14:00:12.858Z</time></trkpt><trkpt lat="39.73098703726367" lon="9.501569500493009"><ele>816.0</ele><time>2026-04-28T14:00:13.858Z</time></trkpt><trkpt lat="39.73112193458267" lon="9.501644769988317"><ele>817.0</ele><time>2026-04-28T14:00:14.858Z</time></trkpt><trkpt lat="39.73125469891643" lon="9.501718481937582"><ele>818.0</ele><time>2026-04-28T14:00:15.858Z</time></trkpt><trkpt lat="39.731382706853644" lon="9.501795216789864"><ele>819.0</ele><time>2026-04-28T14:00:16.858Z</time></trkpt><trkpt lat="39.73150895679486" lon="9.501882366715321"><ele>820.0</ele><time>2026-04-28T14:00:17.858Z</time></trkpt><trkpt lat="39.73163430169485" lon="9.501982906828873"><ele>820.3333333333333</ele><time>2026-04-28T14:00:18.858Z</time></trkpt><trkpt lat="39.73175678241735" lon="9.502098682428757"><ele>820.6666666666667</ele><time>2026-04-28T14:00:19.858Z</time></trkpt><trkpt lat="39.731866951468994" lon="9.502253104358909"><ele>821.0</ele><time>2026-04-28T14:00:20.858Z</time></trkpt><trkpt lat="39.731969057325514" lon="9.502400145906753"><ele>819.0</ele><time>2026-04-28T14:00:21.858Z</time></trkpt><trkpt lat="39.73207145324362" lon="9.50255319396576"><ele>817.0</ele><time>2026-04-28T14:00:22.858Z</time></trkpt><trkpt lat="39.73216640901111" lon="9.502706082610596"><ele>815.0</ele><time>2026-04-28T14:00:23.858Z</time></trkpt><trkpt lat="39.732266813405765" lon="9.502866113375232"><ele>815.5</ele><time>2026-04-28T14:00:24.858Z</time></trkpt><trkpt lat="39.73237242916782" lon="9.503012923385752"><ele>816.0</ele><time>2026-04-28T14:00:25.858Z</time></trkpt><trkpt lat="39.732470211705724" lon="9.503153737407818"><ele>816.5</ele><time>2026-04-28T14:00:26.858Z</time></trkpt><trkpt lat="39.732554508172754" lon="9.503264395372808"><ele>817.0</ele><time>2026-04-28T14:00:27.858Z</time></trkpt><trkpt lat="39.73264853857132" lon="9.503358898882903"><ele>817.75</ele><time>2026-04-28T14:00:28.857Z</time></trkpt><trkpt lat="39.73275375242568" lon="9.503430889849625"><ele>818.5</ele><time>2026-04-28T14:00:29.857Z</time></trkpt><trkpt lat="39.73286580245207" lon="9.503481865550723"><ele>819.25</ele><time>2026-04-28T14:00:30.857Z</time></trkpt><trkpt lat="39.73298928534647" lon="9.503498314362334"><ele>820.0</ele><time>2026-04-28T14:00:31.856Z</time></trkpt><trkpt lat="39.73312793488754" lon="9.503492113365112"><ele>820.0</ele><time>2026-04-28T14:00:32.856Z</time></trkpt><trkpt lat="39.73325138867139" lon="9.50346348228305"><ele>820.0</ele><time>2026-04-28T14:00:33.856Z</time></trkpt><trkpt lat="39.73336368172611" lon="9.503391822855587"><ele>820.0</ele><time>2026-04-28T14:00:34.856Z</time></trkpt><trkpt lat="39.73346690732055" lon="9.503300677250426"><ele>820.0</ele><time>2026-04-28T14:00:35.856Z</time></trkpt><trkpt lat="39.73357700044901" lon="9.503196007544132"><ele>820.75</ele><time>2026-04-28T14:00:36.856Z</time></trkpt><trkpt lat="39.73368842576133" lon="9.503075847557302"><ele>821.5</ele><time>2026-04-28T14:00:37.856Z</time></trkpt><trkpt lat="39.73380036767375" lon="9.502957391804987"><ele>822.25</ele><time>2026-04-28T14:00:38.856Z</time></trkpt><trkpt lat="39.73391121632597" lon="9.502838695915267"><ele>823.0</ele><time>2026-04-28T14:00:39.856Z</time></trkpt><trkpt lat="39.73402634025788" lon="9.502722105693188"><ele>823.0</ele><time>2026-04-28T14:00:40.856Z</time></trkpt><trkpt lat="39.73414456850889" lon="9.502604802338478"><ele>823.0</ele><time>2026-04-28T14:00:41.856Z</time></trkpt><trkpt lat="39.734263169430854" lon="9.502480106631944"><ele>823.0</ele><time>2026-04-28T14:00:42.856Z</time></trkpt><trkpt lat="39.73438105313402" lon="9.50235918454227"><ele>824.3333333333333</ele><time>2026-04-28T14:00:43.856Z</time></trkpt><trkpt lat="39.73450152636331" lon="9.502234848502958"><ele>825.6666666666667</ele><time>2026-04-28T14:00:44.856Z</time></trkpt><trkpt lat="39.734624008773956" lon="9.502113589776135"><ele>827.0</ele><time>2026-04-28T14:00:45.856Z</time></trkpt><trkpt lat="39.73474300169962" lon="9.501995033119385"><ele>827.0</ele><time>2026-04-28T14:00:46.856Z</time></trkpt><trkpt lat="39.73486280478213" lon="9.50187012651735"><ele>827.0</ele><time>2026-04-28T14:00:47.856Z</time></trkpt><trkpt lat="39.73498301909979" lon="9.501749884282782"><ele>827.0</ele><time>2026-04-28T14:00:48.856Z</time></trkpt><trkpt lat="39.73510596527909" lon="9.5016257442081"><ele>824.3333333333334</ele><time>2026-04-28T14:00:49.856Z</time></trkpt><trkpt lat="39.735227887231034" lon="9.501494081257002"><ele>821.6666666666667</ele><time>2026-04-28T14:00:50.856Z</time></trkpt><trkpt lat="39.7353503551963" lon="9.501371035523553"><ele>819.0</ele><time>2026-04-28T14:00:51.856Z</time></trkpt><trkpt lat="39.73546937958854" lon="9.501253029846865"><ele>821.5</ele><time>2026-04-28T14:00:52.856Z</time></trkpt><trkpt lat="39.735583466920204" lon="9.50113996248275"><ele>824.0</ele><time>2026-04-28T14:00:53.856Z</time></trkpt><trkpt lat="39.73570201197992" lon="9.50101383535972"><ele>826.5</ele><time>2026-04-28T14:00:54.856Z</time></trkpt><trkpt lat="39.73581689477579" lon="9.500898467491606"><ele>829.0</ele><time>2026-04-28T14:00:55.856Z</time></trkpt><trkpt lat="39.73592837750988" lon="9.500786556285115"><ele>829.0</ele><time>2026-04-28T14:00:56.856Z</time></trkpt><trkpt lat="39.73603607707838" lon="9.500681370209549"><ele>829.0</ele><time>2026-04-28T14:00:57.856Z</time></trkpt><trkpt lat="39.73613515715648" lon="9.500596842205526"><ele>829.0</ele><time>2026-04-28T14:00:58.856Z</time></trkpt><trkpt lat="39.7362388269012" lon="9.500524266262476"><ele>829.0</ele><time>2026-04-28T14:00:59.856Z</time></trkpt><trkpt lat="39.73634719855391" lon="9.50048759391011"><ele>829.75</ele><time>2026-04-28T14:01:00.856Z</time></trkpt><trkpt lat="39.73645714459638" lon="9.500470558813655"><ele>830.5</ele><time>2026-04-28T14:01:01.856Z</time></trkpt><trkpt lat="39.736569826905615" lon="9.500476400159066"><ele>831.25</ele><time>2026-04-28T14:01:02.856Z</time></trkpt><trkpt lat="39.73668166528709" lon="9.50051343022728"><ele>832.0</ele><time>2026-04-28T14:01:03.856Z</time></trkpt><trkpt lat="39.73678840856245" lon="9.500571880516231"><ele>832.0</ele><time>2026-04-28T14:01:04.856Z</time></trkpt><trkpt lat="39.73686519866497" lon="9.500669844881813"><ele>832.0</ele><time>2026-04-28T14:01:05.856Z</time></trkpt><trkpt lat="39.73695097305792" lon="9.500765124055489"><ele>832.0</ele><time>2026-04-28T14:01:06.856Z</time></trkpt><trkpt lat="39.737038676972226" lon="9.50086630185569"><ele>832.0</ele><time>2026-04-28T14:01:07.856Z</time></trkpt><trkpt lat="39.73712006847435" lon="9.500969648574142"><ele>831.25</ele><time>2026-04-28T14:01:08.856Z</time></trkpt><trkpt lat="39.737211892129075" lon="9.501073579880492"><ele>830.5</ele><time>2026-04-28T14:01:09.856Z</time></trkpt><trkpt lat="39.73730724983311" lon="9.501170537867427"><ele>829.75</ele><time>2026-04-28T14:01:10.856Z</time></trkpt><trkpt lat="39.73739383266562" lon="9.50125032898159"><ele>829.0</ele><time>2026-04-28T14:01:11.856Z</time></trkpt><trkpt lat="39.7374912381675" lon="9.50131400598739"><ele>829.0</ele><time>2026-04-28T14:01:12.856Z</time></trkpt><trkpt lat="39.737593609543296" lon="9.501357760027357"><ele>829.0</ele><time>2026-04-28T14:01:13.856Z</time></trkpt><trkpt lat="39.73770032409119" lon="9.501366081797013"><ele>829.0</ele><time>2026-04-28T14:01:14.856Z</time></trkpt><trkpt lat="39.73781605457919" lon="9.501336018083542"><ele>829.0</ele><time>2026-04-28T14:01:15.856Z</time></trkpt><trkpt lat="39.73792301980627" lon="9.50128244004796"><ele>829.0</ele><time>2026-04-28T14:01:16.856Z</time></trkpt><trkpt lat="39.738015630182524" lon="9.501199484776947"><ele>831.25</ele><time>2026-04-28T14:01:17.856Z</time></trkpt><trkpt lat="39.73810809772447" lon="9.501087234874273"><ele>833.5</ele><time>2026-04-28T14:01:18.856Z</time></trkpt><trkpt lat="39.73817288444275" lon="9.500960800017516"><ele>835.75</ele><time>2026-04-28T14:01:19.856Z</time></trkpt><trkpt lat="39.73823489221065" lon="9.500808348606947"><ele>838.0</ele><time>2026-04-28T14:01:20.856Z</time></trkpt><trkpt lat="39.73828975242086" lon="9.500652244126565"><ele>838.0</ele><time>2026-04-28T14:01:21.856Z</time></trkpt><trkpt lat="39.73834068612976" lon="9.500506164952494"><ele>838.0</ele><time>2026-04-28T14:01:22.856Z</time></trkpt><trkpt lat="39.73839046242203" lon="9.500368351929708"><ele>838.0</ele><time>2026-04-28T14:01:23.856Z</time></trkpt><trkpt lat="39.73844218257793" lon="9.500244490185304"><ele>838.0</ele><time>2026-04-28T14:01:24.856Z</time></trkpt><trkpt lat="39.738511537925916" lon="9.500135007422294"><ele>837.75</ele><time>2026-04-28T14:01:25.856Z</time></trkpt><trkpt lat="39.73859576245121" lon="9.50003834452499"><ele>837.5</ele><time>2026-04-28T14:01:26.856Z</time></trkpt><trkpt lat="39.73870017044987" lon="9.499971505838426"><ele>837.25</ele><time>2026-04-28T14:01:27.856Z</time></trkpt><trkpt lat="39.73882385419277" lon="9.499947701582633"><ele>837.0</ele><time>2026-04-28T14:01:28.856Z</time></trkpt><trkpt lat="39.738937237259364" lon="9.499900245762376"><ele>837.0</ele><time>2026-04-28T14:01:29.856Z</time></trkpt><trkpt lat="39.73906401780802" lon="9.499876040233133"><ele>837.0</ele><time>2026-04-28T14:01:30.856Z</time></trkpt><trkpt lat="39.73919234543574" lon="9.499843990116739"><ele>837.0</ele><time>2026-04-28T14:01:31.857Z</time></trkpt><trkpt lat="39.73932107974699" lon="9.499810378427101"><ele>837.0</ele><time>2026-04-28T14:01:32.857Z</time></trkpt><trkpt lat="39.73945263048467" lon="9.499778922676514"><ele>837.25</ele><time>2026-04-28T14:01:33.857Z</time></trkpt><trkpt lat="39.739583655130346" lon="9.499738118412129"><ele>837.5</ele><time>2026-04-28T14:01:34.857Z</time></trkpt><trkpt lat="39.73971598630044" lon="9.49969971350137"><ele>837.75</ele><time>2026-04-28T14:01:35.857Z</time></trkpt><trkpt lat="39.73985534019706" lon="9.499656447467117"><ele>838.0</ele><time>2026-04-28T14:01:36.857Z</time></trkpt><trkpt lat="39.739998945146766" lon="9.49961734876859"><ele>837.0</ele><time>2026-04-28T14:01:37.857Z</time></trkpt><trkpt lat="39.740142001967136" lon="9.499576906854788"><ele>836.0</ele><time>2026-04-28T14:01:38.857Z</time></trkpt><trkpt lat="39.74028473324932" lon="9.499534884565557"><ele>835.0</ele><time>2026-04-28T14:01:39.857Z</time></trkpt><trkpt lat="39.74042224357353" lon="9.499495273261836"><ele>834.0</ele><time>2026-04-28T14:01:40.857Z</time></trkpt><trkpt lat="39.74056244770317" lon="9.499454719669941"><ele>834.0</ele><time>2026-04-28T14:01:41.857Z</time></trkpt><trkpt lat="39.74070392609104" lon="9.499415469049394"><ele>834.0</ele><time>2026-04-28T14:01:42.857Z</time></trkpt><trkpt lat="39.74084135368783" lon="9.49937391370097"><ele>834.0</ele><time>2026-04-28T14:01:43.857Z</time></trkpt><trkpt lat="39.74097588898144" lon="9.499335351435953"><ele>834.0</ele><time>2026-04-28T14:01:44.857Z</time></trkpt><trkpt lat="39.74111403963447" lon="9.49929776050133"><ele>834.0</ele><time>2026-04-28T14:01:45.857Z</time></trkpt><trkpt lat="39.74125115683715" lon="9.499260015113071"><ele>834.0</ele><time>2026-04-28T14:01:46.857Z</time></trkpt><trkpt lat="39.74138931755217" lon="9.499217082050798"><ele>834.0</ele><time>2026-04-28T14:01:47.857Z</time></trkpt><trkpt lat="39.74152566221928" lon="9.499176564736022"><ele>834.0</ele><time>2026-04-28T14:01:48.857Z</time></trkpt><trkpt lat="39.74166235001233" lon="9.499140407204168"><ele>834.0</ele><time>2026-04-28T14:01:49.857Z</time></trkpt><trkpt lat="39.74179546961104" lon="9.499103698079455"><ele>834.0</ele><time>2026-04-28T14:01:50.857Z</time></trkpt><trkpt lat="39.741928144911114" lon="9.499066411443884"><ele>834.0</ele><time>2026-04-28T14:01:51.857Z</time></trkpt><trkpt lat="39.74206281439518" lon="9.499026833592527"><ele>834.0</ele><time>2026-04-28T14:01:52.857Z</time></trkpt><trkpt lat="39.74219815806802" lon="9.498982607089765"><ele>833.25</ele><time>2026-04-28T14:01:53.857Z</time></trkpt><trkpt lat="39.74232810003787" lon="9.498939251753473"><ele>832.5</ele><time>2026-04-28T14:01:54.857Z</time></trkpt><trkpt lat="39.74245596059264" lon="9.498892215784915"><ele>831.75</ele><time>2026-04-28T14:01:55.857Z</time></trkpt><trkpt lat="39.74258526102856" lon="9.498835261344071"><ele>831.0</ele><time>2026-04-28T14:01:56.857Z</time></trkpt><trkpt lat="39.74270965241417" lon="9.498774923904646"><ele>830.25</ele><time>2026-04-28T14:01:57.857Z</time></trkpt><trkpt lat="39.74283551068577" lon="9.498702549890465"><ele>829.5</ele><time>2026-04-28T14:01:58.857Z</time></trkpt><trkpt lat="39.74295983853975" lon="9.498621891167154"><ele>828.75</ele><time>2026-04-28T14:01:59.857Z</time></trkpt><trkpt lat="39.74307683019395" lon="9.498528995011734"><ele>828.0</ele><time>2026-04-28T14:02:00.857Z</time></trkpt><trkpt lat="39.74319176315797" lon="9.498431639393072"><ele>828.0</ele><time>2026-04-28T14:02:01.857Z</time></trkpt><trkpt lat="39.743311895685956" lon="9.498326378523574"><ele>828.0</ele><time>2026-04-28T14:02:02.857Z</time></trkpt><trkpt lat="39.7434363139461" lon="9.498217551075617"><ele>828.0</ele><time>2026-04-28T14:02:03.857Z</time></trkpt><trkpt lat="39.743558910218546" lon="9.49810839627238"><ele>828.0</ele><time>2026-04-28T14:02:04.857Z</time></trkpt><trkpt lat="39.74367695261244" lon="9.49799710321744"><ele>828.5</ele><time>2026-04-28T14:02:05.857Z</time></trkpt><trkpt lat="39.74379559561401" lon="9.497889988776238"><ele>829.0</ele><time>2026-04-28T14:02:06.857Z</time></trkpt><trkpt lat="39.74391057277371" lon="9.497786547096451"><ele>829.5</ele><time>2026-04-28T14:02:07.857Z</time></trkpt><trkpt lat="39.7440232584865" lon="9.497685713849673"><ele>830.0</ele><time>2026-04-28T14:02:08.857Z</time></trkpt><trkpt lat="39.744126873954066" lon="9.497592837542983"><ele>830.0</ele><time>2026-04-28T14:02:09.857Z</time></trkpt><trkpt lat="39.74422657650234" lon="9.497504614764928"><ele>830.0</ele><time>2026-04-28T14:02:10.857Z</time></trkpt><trkpt lat="39.74431368248666" lon="9.497425999773892"><ele>830.0</ele><time>2026-04-28T14:02:11.857Z</time></trkpt><trkpt lat="39.74440264653889" lon="9.497348899147786"><ele>830.0</ele><time>2026-04-28T14:02:12.857Z</time></trkpt><trkpt lat="39.7444801959729" lon="9.497281294633272"><ele>830.0</ele><time>2026-04-28T14:02:13.857Z</time></trkpt><trkpt lat="39.74453987022389" lon="9.497231253846358"><ele>829.0</ele><time>2026-04-28T14:02:14.857Z</time></trkpt><trkpt lat="39.7446238958174" lon="9.497162740688191"><ele>829.0</ele><time>2026-04-28T14:02:16.857Z</time></trkpt><trkpt lat="39.74470065163785" lon="9.49714490082998"><ele>829.0</ele><time>2026-04-28T14:02:19.857Z</time></trkpt></trkseg><trkseg><trkpt lat="39.747156131755744" lon="9.495450874534313"><ele>831.5</ele><time>2026-04-28T14:12:15.396Z</time></trkpt><trkpt lat="39.74727536880061" lon="9.495341674958453"><ele>834.0</ele><time>2026-04-28T14:12:16.347Z</time></trkpt><trkpt lat="39.74739661212245" lon="9.495232541588964"><ele>836.5</ele><time>2026-04-28T14:12:17.296Z</time></trkpt><trkpt lat="39.747522518473254" lon="9.495124458976646"><ele>839.0</ele><time>2026-04-28T14:12:18.246Z</time></trkpt><trkpt lat="39.747646394949015" lon="9.495016236599824"><ele>836.75</ele><time>2026-04-28T14:12:19.196Z</time></trkpt><trkpt lat="39.74776917783222" lon="9.494908843346323"><ele>834.5</ele><time>2026-04-28T14:12:20.146Z</time></trkpt><trkpt lat="39.747891722664725" lon="9.494796837544724"><ele>832.25</ele><time>2026-04-28T14:12:21.097Z</time></trkpt><trkpt lat="39.748016428779124" lon="9.494688382945974"><ele>830.0</ele><time>2026-04-28T14:12:22.046Z</time></trkpt><trkpt lat="39.748141527800186" lon="9.494590912223172"><ele>831.5</ele><time>2026-04-28T14:12:22.996Z</time></trkpt><trkpt lat="39.74826810369863" lon="9.494491604212254"><ele>833.0</ele><time>2026-04-28T14:12:23.946Z</time></trkpt><trkpt lat="39.74839512749882" lon="9.494406687444249"><ele>834.5</ele><time>2026-04-28T14:12:24.896Z</time></trkpt><trkpt lat="39.748523709279304" lon="9.494335031530191"><ele>836.0</ele><time>2026-04-28T14:12:25.857Z</time></trkpt><trkpt lat="39.7486655520121" lon="9.494284998291096"><ele>836.0</ele><time>2026-04-28T14:12:26.857Z</time></trkpt><trkpt lat="39.74880353091896" lon="9.494244364516963"><ele>836.0</ele><time>2026-04-28T14:12:27.857Z</time></trkpt><trkpt lat="39.74895916428432" lon="9.49418835986787"><ele>836.0</ele><time>2026-04-28T14:12:28.857Z</time></trkpt><trkpt lat="39.749116123112735" lon="9.494177390908384"><ele>836.0</ele><time>2026-04-28T14:12:29.857Z</time></trkpt><trkpt lat="39.74927768721132" lon="9.494191319052689"><ele>836.0</ele><time>2026-04-28T14:12:30.857Z</time></trkpt><trkpt lat="39.749444261512565" lon="9.494210297692694"><ele>836.0</ele><time>2026-04-28T14:12:31.857Z</time></trkpt><trkpt lat="39.74961252013004" lon="9.494238802946715"><ele>837.6666666666667</ele><time>2026-04-28T14:12:32.857Z</time></trkpt><trkpt lat="39.749783088633556" lon="9.494268618422192"><ele>839.3333333333333</ele><time>2026-04-28T14:12:33.857Z</time></trkpt><trkpt lat="39.74996307776848" lon="9.494300423190083"><ele>841.0</ele><time>2026-04-28T14:12:34.857Z</time></trkpt><trkpt lat="39.750150761495995" lon="9.494333587544963"><ele>840.3333333333333</ele><time>2026-04-28T14:12:35.857Z</time></trkpt><trkpt lat="39.75033604413106" lon="9.494364215056471"><ele>839.6666666666667</ele><time>2026-04-28T14:12:36.857Z</time></trkpt><trkpt lat="39.750521393775834" lon="9.494395218384819"><ele>839.0</ele><time>2026-04-28T14:12:37.858Z</time></trkpt><trkpt lat="39.7507128618285" lon="9.494427973456741"><ele>839.0</ele><time>2026-04-28T14:12:38.858Z</time></trkpt><trkpt lat="39.75090837215845" lon="9.494447345468773"><ele>839.0</ele><time>2026-04-28T14:12:39.858Z</time></trkpt><trkpt lat="39.751101370550366" lon="9.494483132268067"><ele>839.0</ele><time>2026-04-28T14:12:40.858Z</time></trkpt><trkpt lat="39.751298365467406" lon="9.49451731549442"><ele>839.6666666666667</ele><time>2026-04-28T14:12:41.858Z</time></trkpt><trkpt lat="39.75149468651107" lon="9.494553161556347"><ele>840.3333333333333</ele><time>2026-04-28T14:12:42.858Z</time></trkpt><trkpt lat="39.751702776981546" lon="9.494596145798877"><ele>841.0</ele><time>2026-04-28T14:12:43.858Z</time></trkpt><trkpt lat="39.75189724723249" lon="9.494626856279915"><ele>841.0</ele><time>2026-04-28T14:12:44.858Z</time></trkpt><trkpt lat="39.752097334655666" lon="9.494660228668929"><ele>841.0</ele><time>2026-04-28T14:12:45.858Z</time></trkpt><trkpt lat="39.75229532780561" lon="9.494697597809035"><ele>841.0</ele><time>2026-04-28T14:12:46.858Z</time></trkpt><trkpt lat="39.7524938190645" lon="9.494734346170647"><ele>841.0</ele><time>2026-04-28T14:12:47.858Z</time></trkpt><trkpt lat="39.752689975099806" lon="9.494762526478382"><ele>841.0</ele><time>2026-04-28T14:12:48.858Z</time></trkpt><trkpt lat="39.75288637550099" lon="9.494793406886465"><ele>841.0</ele><time>2026-04-28T14:12:49.858Z</time></trkpt><trkpt lat="39.753083408977616" lon="9.494826745089439"><ele>843.0</ele><time>2026-04-28T14:12:50.858Z</time></trkpt><trkpt lat="39.75327825030634" lon="9.49485332957517"><ele>845.0</ele><time>2026-04-28T14:12:51.858Z</time></trkpt><trkpt lat="39.75347446537592" lon="9.49489405840549"><ele>847.0</ele><time>2026-04-28T14:12:52.858Z</time></trkpt><trkpt lat="39.75365869363484" lon="9.494933852002575"><ele>847.3333333333333</ele><time>2026-04-28T14:12:53.858Z</time></trkpt><trkpt lat="39.75384578245948" lon="9.494975644155348"><ele>847.6666666666667</ele><time>2026-04-28T14:12:54.858Z</time></trkpt><trkpt lat="39.75403655795917" lon="9.495018413769936"><ele>848.0</ele><time>2026-04-28T14:12:55.858Z</time></trkpt><trkpt lat="39.75422518077824" lon="9.49506499049442"><ele>847.6666666666667</ele><time>2026-04-28T14:12:56.858Z</time></trkpt><trkpt lat="39.754416238810656" lon="9.495118465988815"><ele>847.3333333333333</ele><time>2026-04-28T14:12:57.858Z</time></trkpt><trkpt lat="39.754610102936574" lon="9.495167522573862"><ele>847.0</ele><time>2026-04-28T14:12:58.858Z</time></trkpt><trkpt lat="39.75479949041985" lon="9.495213807547465"><ele>847.0</ele><time>2026-04-28T14:12:59.858Z</time></trkpt><trkpt lat="39.754983957535025" lon="9.495263243307507"><ele>847.0</ele><time>2026-04-28T14:13:00.858Z</time></trkpt><trkpt lat="39.755173906284135" lon="9.495312556564066"><ele>847.0</ele><time>2026-04-28T14:13:01.858Z</time></trkpt><trkpt lat="39.755362458588365" lon="9.495359488901116"><ele>847.0</ele><time>2026-04-28T14:13:02.858Z</time></trkpt><trkpt lat="39.75554737131872" lon="9.495406378764777"><ele>847.0</ele><time>2026-04-28T14:13:03.858Z</time></trkpt><trkpt lat="39.755726103311126" lon="9.495452351971368"><ele>847.0</ele><time>2026-04-28T14:13:04.858Z</time></trkpt><trkpt lat="39.755891363861046" lon="9.495488934840933"><ele>847.0</ele><time>2026-04-28T14:13:05.858Z</time></trkpt><trkpt lat="39.75605648482267" lon="9.495528111889275"><ele>847.0</ele><time>2026-04-28T14:13:06.858Z</time></trkpt><trkpt lat="39.756222569023954" lon="9.495566639384153"><ele>847.0</ele><time>2026-04-28T14:13:07.858Z</time></trkpt><trkpt lat="39.75639019260103" lon="9.495607884140458"><ele>847.0</ele><time>2026-04-28T14:13:08.858Z</time></trkpt><trkpt lat="39.75655022887227" lon="9.495646260100765"><ele>847.0</ele><time>2026-04-28T14:13:09.858Z</time></trkpt><trkpt lat="39.756693613587586" lon="9.495680059047645"><ele>847.0</ele><time>2026-04-28T14:13:10.858Z</time></trkpt><trkpt lat="39.75682538648105" lon="9.495697013613556"><ele>847.0</ele><time>2026-04-28T14:13:11.858Z</time></trkpt><trkpt lat="39.75693967334557" lon="9.495692551546792"><ele>845.3333333333333</ele><time>2026-04-28T14:13:12.858Z</time></trkpt><trkpt lat="39.757015798013924" lon="9.495691118267407"><ele>843.6666666666666</ele><time>2026-04-28T14:13:13.858Z</time></trkpt><trkpt lat="39.75708616119041" lon="9.49565542539396"><ele>842.0</ele><time>2026-04-28T14:13:15.858Z</time></trkpt><trkpt lat="39.75716629508288" lon="9.495638393847527"><ele>840.3333333333333</ele><time>2026-04-28T14:13:18.858Z</time></trkpt><trkpt lat="39.757087132175265" lon="9.495646376322101"><ele>838.6666666666666</ele><time>2026-04-28T14:13:25.858Z</time></trkpt><trkpt lat="39.75701172011465" lon="9.495615817977168"><ele>837.0</ele><time>2026-04-28T14:13:26.859Z</time></trkpt><trkpt lat="39.756946279823126" lon="9.495636914990621"><ele>839.0</ele><time>2026-04-28T14:13:27.86Z</time></trkpt><trkpt lat="39.756868632079055" lon="9.49565515422686"><ele>841.0</ele><time>2026-04-28T14:13:28.861Z</time></trkpt><trkpt lat="39.75678447068649" lon="9.495660042507238"><ele>843.0</ele><time>2026-04-28T14:13:29.861Z</time></trkpt><trkpt lat="39.75669409006854" lon="9.495644543574102"><ele>845.0</ele><time>2026-04-28T14:13:30.862Z</time></trkpt><trkpt lat="39.756587831408474" lon="9.495625714188119"><ele>847.0</ele><time>2026-04-28T14:13:31.863Z</time></trkpt><trkpt lat="39.75647540319963" lon="9.495588003070331"><ele>847.0</ele><time>2026-04-28T14:13:32.863Z</time></trkpt><trkpt lat="39.75636122469379" lon="9.495558389184906"><ele>847.0</ele><time>2026-04-28T14:13:33.864Z</time></trkpt><trkpt lat="39.75625380323995" lon="9.495533027606518"><ele>847.0</ele><time>2026-04-28T14:13:34.865Z</time></trkpt><trkpt lat="39.756156729367795" lon="9.495516457104063"><ele>847.0</ele><time>2026-04-28T14:13:35.865Z</time></trkpt><trkpt lat="39.756073238330636" lon="9.495496146373949"><ele>847.0</ele><time>2026-04-28T14:13:36.866Z</time></trkpt><trkpt lat="39.75599699777527" lon="9.49545800728313"><ele>847.0</ele><time>2026-04-28T14:13:38.867Z</time></trkpt><trkpt lat="39.75613744100096" lon="9.495556183957833"><ele>847.0</ele><time>2026-04-28T14:21:40.874Z</time></trkpt><trkpt lat="39.75620941111773" lon="9.49557687682625"><ele>847.0</ele><time>2026-04-28T14:21:41.874Z</time></trkpt><trkpt lat="39.7562841913351" lon="9.495597895835203"><ele>847.0</ele><time>2026-04-28T14:21:42.874Z</time></trkpt><trkpt lat="39.75636292916805" lon="9.495615666656581"><ele>847.0</ele><time>2026-04-28T14:21:43.874Z</time></trkpt><trkpt lat="39.75644539417935" lon="9.49563787954947"><ele>847.0</ele><time>2026-04-28T14:21:44.874Z</time></trkpt><trkpt lat="39.756535222230234" lon="9.495662037224383"><ele>847.0</ele><time>2026-04-28T14:21:45.874Z</time></trkpt><trkpt lat="39.75663342568252" lon="9.495683827972845"><ele>847.0</ele><time>2026-04-28T14:21:46.874Z</time></trkpt><trkpt lat="39.756732484346976" lon="9.495694306408641"><ele>847.0</ele><time>2026-04-28T14:21:47.875Z</time></trkpt><trkpt lat="39.75683956600165" lon="9.495694356769855"><ele>847.0</ele><time>2026-04-28T14:21:48.875Z</time></trkpt><trkpt lat="39.75694314698039" lon="9.495681065470405"><ele>844.5</ele><time>2026-04-28T14:21:49.875Z</time></trkpt><trkpt lat="39.75704894498104" lon="9.495653381141896"><ele>842.0</ele><time>2026-04-28T14:21:50.875Z</time></trkpt><trkpt lat="39.757153693175816" lon="9.495608031004084"><ele>839.5</ele><time>2026-04-28T14:21:51.875Z</time></trkpt><trkpt lat="39.757261125231395" lon="9.495546374602794"><ele>837.0</ele><time>2026-04-28T14:21:52.875Z</time></trkpt><trkpt lat="39.75736656127616" lon="9.495466910676095"><ele>839.0</ele><time>2026-04-28T14:21:53.875Z</time></trkpt><trkpt lat="39.75747291243701" lon="9.495362789075259"><ele>841.0</ele><time>2026-04-28T14:21:54.875Z</time></trkpt><trkpt lat="39.75757518112548" lon="9.495253319692727"><ele>843.0</ele><time>2026-04-28T14:21:55.875Z</time></trkpt><trkpt lat="39.757682308286384" lon="9.495134635770942"><ele>845.0</ele><time>2026-04-28T14:21:56.875Z</time></trkpt><trkpt lat="39.75779674401609" lon="9.495009969912992"><ele>839.6666666666667</ele><time>2026-04-28T14:21:57.875Z</time></trkpt><trkpt lat="39.757914923626196" lon="9.494881891612069"><ele>834.3333333333333</ele><time>2026-04-28T14:21:58.875Z</time></trkpt><trkpt lat="39.75802862803362" lon="9.49475545816752"><ele>829.0</ele><time>2026-04-28T14:21:59.875Z</time></trkpt><trkpt lat="39.75814164085992" lon="9.494627823526521"><ele>830.0</ele><time>2026-04-28T14:22:00.875Z</time></trkpt><trkpt lat="39.758250257743406" lon="9.494505228378651"><ele>831.0</ele><time>2026-04-28T14:22:01.875Z</time></trkpt><trkpt lat="39.75835792944094" lon="9.494392728686154"><ele>832.0</ele><time>2026-04-28T14:22:02.875Z</time></trkpt><trkpt lat="39.75845905570152" lon="9.494295176101398"><ele>833.0</ele><time>2026-04-28T14:22:03.875Z</time></trkpt><trkpt lat="39.758553288655996" lon="9.494222016113433"><ele>833.0</ele><time>2026-04-28T14:22:04.875Z</time></trkpt><trkpt lat="39.75865098954873" lon="9.494175952727526"><ele>833.0</ele><time>2026-04-28T14:22:05.875Z</time></trkpt><trkpt lat="39.758759830086355" lon="9.494168214942722"><ele>833.0</ele><time>2026-04-28T14:22:06.875Z</time></trkpt><trkpt lat="39.75886539272296" lon="9.494190101465115"><ele>833.0</ele><time>2026-04-28T14:22:07.875Z</time></trkpt><trkpt lat="39.75896244740658" lon="9.494248351250302"><ele>833.0</ele><time>2026-04-28T14:22:08.875Z</time></trkpt><trkpt lat="39.75904097875037" lon="9.494355597947804"><ele>833.0</ele><time>2026-04-28T14:22:09.875Z</time></trkpt><trkpt lat="39.75914246982245" lon="9.4944491081762"><ele>833.0</ele><time>2026-04-28T14:22:10.875Z</time></trkpt><trkpt lat="39.759236900750615" lon="9.49455512940178"><ele>833.0</ele><time>2026-04-28T14:22:11.875Z</time></trkpt><trkpt lat="39.75933375866923" lon="9.49465629926949"><ele>833.0</ele><time>2026-04-28T14:22:12.875Z</time></trkpt><trkpt lat="39.75943419778604" lon="9.494741156713173"><ele>828.0</ele><time>2026-04-28T14:22:13.875Z</time></trkpt><trkpt lat="39.75954668769937" lon="9.494796715888706"><ele>823.0</ele><time>2026-04-28T14:22:14.875Z</time></trkpt><trkpt lat="39.75965637505147" lon="9.494822871181354"><ele>818.0</ele><time>2026-04-28T14:22:15.875Z</time></trkpt><trkpt lat="39.75976920116289" lon="9.494811816333748"><ele>813.0</ele><time>2026-04-28T14:22:16.875Z</time></trkpt><trkpt lat="39.75987621956563" lon="9.494768540912897"><ele>813.0</ele><time>2026-04-28T14:22:17.875Z</time></trkpt><trkpt lat="39.75997889117415" lon="9.49469004533175"><ele>813.0</ele><time>2026-04-28T14:22:18.875Z</time></trkpt><trkpt lat="39.76008843321762" lon="9.494594951765452"><ele>813.0</ele><time>2026-04-28T14:22:19.875Z</time></trkpt><trkpt lat="39.76020719519809" lon="9.494493858000197"><ele>813.0</ele><time>2026-04-28T14:22:20.875Z</time></trkpt><trkpt lat="39.76033308947911" lon="9.494387772146904"><ele>811.0</ele><time>2026-04-28T14:22:21.875Z</time></trkpt><trkpt lat="39.76045816867121" lon="9.494270689447372"><ele>809.0</ele><time>2026-04-28T14:22:22.875Z</time></trkpt><trkpt lat="39.76057561056898" lon="9.494137016227585"><ele>807.0</ele><time>2026-04-28T14:22:23.875Z</time></trkpt><trkpt lat="39.76069410634505" lon="9.4939907093744"><ele>807.0</ele><time>2026-04-28T14:22:24.875Z</time></trkpt><trkpt lat="39.760812459312085" lon="9.493842137583513"><ele>807.0</ele><time>2026-04-28T14:22:25.875Z</time></trkpt><trkpt lat="39.76093562655246" lon="9.493696588943884"><ele>807.0</ele><time>2026-04-28T14:22:26.875Z</time></trkpt><trkpt lat="39.76105786152135" lon="9.493554182408165"><ele>805.6666666666667</ele><time>2026-04-28T14:22:27.875Z</time></trkpt><trkpt lat="39.761182423906675" lon="9.493403877234094"><ele>804.3333333333334</ele><time>2026-04-28T14:22:28.875Z</time></trkpt><trkpt lat="39.761302963274176" lon="9.493258048802822"><ele>803.0</ele><time>2026-04-28T14:22:29.875Z</time></trkpt><trkpt lat="39.76141503964531" lon="9.493120757374358"><ele>803.0</ele><time>2026-04-28T14:22:30.875Z</time></trkpt><trkpt lat="39.761521370978826" lon="9.492988294848514"><ele>803.0</ele><time>2026-04-28T14:22:31.875Z</time></trkpt><trkpt lat="39.76161894223578" lon="9.492879114607693"><ele>803.0</ele><time>2026-04-28T14:22:32.875Z</time></trkpt><trkpt lat="39.76170530939132" lon="9.492795876984578"><ele>803.0</ele><time>2026-04-28T14:22:33.875Z</time></trkpt><trkpt lat="39.761788233237155" lon="9.492748677931964"><ele>804.6666666666667</ele><time>2026-04-28T14:22:34.875Z</time></trkpt><trkpt lat="39.76187052402169" lon="9.492735524989094"><ele>806.3333333333334</ele><time>2026-04-28T14:22:35.875Z</time></trkpt><trkpt lat="39.76194335791677" lon="9.492756459124882"><ele>808.0</ele><time>2026-04-28T14:22:36.875Z</time></trkpt><trkpt lat="39.76200572658961" lon="9.492820987364192"><ele>809.6666666666667</ele><time>2026-04-28T14:22:37.875Z</time></trkpt><trkpt lat="39.76204244501743" lon="9.492911610243224"><ele>811.3333333333334</ele><time>2026-04-28T14:22:38.875Z</time></trkpt><trkpt lat="39.76204890433423" lon="9.493011943534157"><ele>813.0</ele><time>2026-04-28T14:22:39.875Z</time></trkpt><trkpt lat="39.76203045707863" lon="9.493115500336348"><ele>814.8</ele><time>2026-04-28T14:22:40.875Z</time></trkpt><trkpt lat="39.761980330732676" lon="9.493220121764512"><ele>816.5999999999999</ele><time>2026-04-28T14:22:41.875Z</time></trkpt><trkpt lat="39.761908073526726" lon="9.493328785757551"><ele>818.4000000000001</ele><time>2026-04-28T14:22:42.874Z</time></trkpt><trkpt lat="39.76183163801093" lon="9.493460018699299"><ele>820.2</ele><time>2026-04-28T14:22:43.874Z</time></trkpt><trkpt lat="39.76177360391513" lon="9.493590910283062"><ele>822.0</ele><time>2026-04-28T14:22:44.874Z</time></trkpt><trkpt lat="39.76173212227025" lon="9.493740448866975"><ele>817.0</ele><time>2026-04-28T14:22:45.874Z</time></trkpt><trkpt lat="39.761709585963764" lon="9.493908613224542"><ele>812.0</ele><time>2026-04-28T14:22:46.874Z</time></trkpt><trkpt lat="39.76170402349176" lon="9.494085954477875"><ele>807.0</ele><time>2026-04-28T14:22:47.874Z</time></trkpt><trkpt lat="39.76170967888754" lon="9.494270806655221"><ele>802.0</ele><time>2026-04-28T14:22:48.874Z</time></trkpt><trkpt lat="39.761721182593725" lon="9.494457539125802"><ele>801.25</ele><time>2026-04-28T14:22:49.874Z</time></trkpt><trkpt lat="39.76174395593794" lon="9.494642694434472"><ele>800.5</ele><time>2026-04-28T14:22:50.874Z</time></trkpt><trkpt lat="39.761781873237254" lon="9.494827120819135"><ele>799.75</ele><time>2026-04-28T14:22:51.873Z</time></trkpt><trkpt lat="39.76183101650346" lon="9.495008626043948"><ele>799.0</ele><time>2026-04-28T14:22:52.874Z</time></trkpt><trkpt lat="39.761885519837925" lon="9.495193742855339"><ele>803.0</ele><time>2026-04-28T14:22:53.874Z</time></trkpt><trkpt lat="39.76193917620572" lon="9.495381267468511"><ele>807.0</ele><time>2026-04-28T14:22:54.874Z</time></trkpt><trkpt lat="39.761988010047546" lon="9.495560730723438"><ele>811.0</ele><time>2026-04-28T14:22:55.874Z</time></trkpt><trkpt lat="39.762022673504056" lon="9.49574668638189"><ele>815.0</ele><time>2026-04-28T14:22:56.874Z</time></trkpt><trkpt lat="39.76203965011836" lon="9.495940376365434"><ele>815.0</ele><time>2026-04-28T14:22:57.874Z</time></trkpt><trkpt lat="39.76204364043126" lon="9.496135732663848"><ele>815.0</ele><time>2026-04-28T14:22:58.874Z</time></trkpt><trkpt lat="39.76202171706768" lon="9.496333118055913"><ele>815.0</ele><time>2026-04-28T14:22:59.874Z</time></trkpt><trkpt lat="39.7620091105904" lon="9.496535390694595"><ele>814.3333333333334</ele><time>2026-04-28T14:23:00.874Z</time></trkpt><trkpt lat="39.76199617094284" lon="9.496740853930307"><ele>813.6666666666667</ele><time>2026-04-28T14:23:01.874Z</time></trkpt><trkpt lat="39.76198290701345" lon="9.496952933057171"><ele>813.0</ele><time>2026-04-28T14:23:02.874Z</time></trkpt><trkpt lat="39.76196948831325" lon="9.497173255633104"><ele>815.0</ele><time>2026-04-28T14:23:03.874Z</time></trkpt><trkpt lat="39.76195605502605" lon="9.497393818222122"><ele>817.0</ele><time>2026-04-28T14:23:04.874Z</time></trkpt><trkpt lat="39.76194261449957" lon="9.497613908363606"><ele>819.0</ele><time>2026-04-28T14:23:05.874Z</time></trkpt><trkpt lat="39.76192908096019" lon="9.497834470065989"><ele>817.6666666666667</ele><time>2026-04-28T14:23:06.874Z</time></trkpt><trkpt lat="39.761915572118106" lon="9.49805462958688"><ele>816.3333333333334</ele><time>2026-04-28T14:23:07.874Z</time></trkpt><trkpt lat="39.76190044756427" lon="9.498277439457429"><ele>815.0</ele><time>2026-04-28T14:23:08.874Z</time></trkpt><trkpt lat="39.761889741089654" lon="9.498491847377089"><ele>809.6666666666667</ele><time>2026-04-28T14:23:09.874Z</time></trkpt><trkpt lat="39.76184411171489" lon="9.498683452503114"><ele>804.3333333333333</ele><time>2026-04-28T14:23:10.874Z</time></trkpt><trkpt lat="39.76178021025289" lon="9.498863817207159"><ele>799.0</ele><time>2026-04-28T14:23:11.874Z</time></trkpt><trkpt lat="39.76168351831305" lon="9.499028729297377"><ele>799.0</ele><time>2026-04-28T14:23:12.874Z</time></trkpt><trkpt lat="39.76158553338095" lon="9.499203844977476"><ele>799.0</ele><time>2026-04-28T14:23:13.874Z</time></trkpt><trkpt lat="39.761483996235754" lon="9.499383524367317"><ele>799.0</ele><time>2026-04-28T14:23:14.874Z</time></trkpt><trkpt lat="39.761379431778906" lon="9.49956832786366"><ele>803.6666666666666</ele><time>2026-04-28T14:23:15.874Z</time></trkpt><trkpt lat="39.7612822983689" lon="9.499765937445208"><ele>808.3333333333333</ele><time>2026-04-28T14:23:16.874Z</time></trkpt><trkpt lat="39.7611721837452" lon="9.499956876173092"><ele>813.0</ele><time>2026-04-28T14:23:17.874Z</time></trkpt><trkpt lat="39.76106119290355" lon="9.500145094929891"><ele>807.6666666666667</ele><time>2026-04-28T14:23:18.875Z</time></trkpt><trkpt lat="39.76095519709055" lon="9.500324758142488"><ele>802.3333333333334</ele><time>2026-04-28T14:23:19.875Z</time></trkpt><trkpt lat="39.760855322443554" lon="9.500494106885638"><ele>797.0</ele><time>2026-04-28T14:23:20.875Z</time></trkpt><trkpt lat="39.76076131447133" lon="9.500656017135693"><ele>797.0</ele><time>2026-04-28T14:23:21.875Z</time></trkpt><trkpt lat="39.76067353908051" lon="9.50080700564329"><ele>797.0</ele><time>2026-04-28T14:23:22.875Z</time></trkpt><trkpt lat="39.76060158209219" lon="9.50094860185331"><ele>797.0</ele><time>2026-04-28T14:23:23.875Z</time></trkpt><trkpt lat="39.76054620875384" lon="9.50108663984002"><ele>797.0</ele><time>2026-04-28T14:23:24.875Z</time></trkpt><trkpt lat="39.7605114943282" lon="9.501230121931032"><ele>795.5</ele><time>2026-04-28T14:23:25.875Z</time></trkpt><trkpt lat="39.760508956418604" lon="9.50137522163264"><ele>794.0</ele><time>2026-04-28T14:23:26.875Z</time></trkpt><trkpt lat="39.76053854515472" lon="9.501539622128869"><ele>792.5</ele><time>2026-04-28T14:23:27.875Z</time></trkpt><trkpt lat="39.760580055893556" lon="9.50170587701552"><ele>791.0</ele><time>2026-04-28T14:23:28.875Z</time></trkpt><trkpt lat="39.760634097013615" lon="9.501880488135068"><ele>791.0</ele><time>2026-04-28T14:23:29.875Z</time></trkpt><trkpt lat="39.76069391830434" lon="9.50205790715322"><ele>791.0</ele><time>2026-04-28T14:23:30.875Z</time></trkpt><trkpt lat="39.76075467924973" lon="9.502243639305915"><ele>791.0</ele><time>2026-04-28T14:23:31.875Z</time></trkpt><trkpt lat="39.760820553459475" lon="9.502435438766113"><ele>791.0</ele><time>2026-04-28T14:23:32.875Z</time></trkpt><trkpt lat="39.76088528256775" lon="9.502631981645836"><ele>791.0</ele><time>2026-04-28T14:23:33.875Z</time></trkpt><trkpt lat="39.760953001732155" lon="9.502808414871316"><ele>791.0</ele><time>2026-04-28T14:23:34.875Z</time></trkpt><trkpt lat="39.76103013271088" lon="9.502972671545022"><ele>782.6666666666667</ele><time>2026-04-28T14:23:35.875Z</time></trkpt><trkpt lat="39.761132550747206" lon="9.503123883473007"><ele>774.3333333333334</ele><time>2026-04-28T14:23:36.875Z</time></trkpt><trkpt lat="39.76124783669198" lon="9.503262535125547"><ele>766.0</ele><time>2026-04-28T14:23:37.875Z</time></trkpt><trkpt lat="39.76137857507325" lon="9.503398265812812"><ele>766.0</ele><time>2026-04-28T14:23:38.875Z</time></trkpt><trkpt lat="39.761526355669076" lon="9.503540244101808"><ele>766.0</ele><time>2026-04-28T14:23:39.875Z</time></trkpt><trkpt lat="39.76168496427214" lon="9.50368762340508"><ele>766.0</ele><time>2026-04-28T14:23:40.875Z</time></trkpt><trkpt lat="39.76184332104484" lon="9.503839105213387"><ele>762.6666666666667</ele><time>2026-04-28T14:23:41.875Z</time></trkpt><trkpt lat="39.76201005567855" lon="9.503994430360244"><ele>759.3333333333334</ele><time>2026-04-28T14:23:42.875Z</time></trkpt><trkpt lat="39.76218313439757" lon="9.50415848801603"><ele>756.0</ele><time>2026-04-28T14:23:43.875Z</time></trkpt><trkpt lat="39.76236305838063" lon="9.504333015711193"><ele>756.0</ele><time>2026-04-28T14:23:44.875Z</time></trkpt><trkpt lat="39.76254766591097" lon="9.504504451018656"><ele>756.0</ele><time>2026-04-28T14:23:45.875Z</time></trkpt><trkpt lat="39.76273002026427" lon="9.50470405626297"><ele>752.5</ele><time>2026-04-28T14:23:46.875Z</time></trkpt><trkpt lat="39.76291565770659" lon="9.504884901164262"><ele>749.0</ele><time>2026-04-28T14:23:47.875Z</time></trkpt><trkpt lat="39.763099689821836" lon="9.505064803305405"><ele>749.0</ele><time>2026-04-28T14:23:48.875Z</time></trkpt><trkpt lat="39.763284498583666" lon="9.5052450326633"><ele>749.0</ele><time>2026-04-28T14:23:49.875Z</time></trkpt><trkpt lat="39.763468890789966" lon="9.505424441365644"><ele>748.3333333333333</ele><time>2026-04-28T14:23:50.875Z</time></trkpt><trkpt lat="39.76364948014132" lon="9.505600150009275"><ele>747.6666666666666</ele><time>2026-04-28T14:23:51.875Z</time></trkpt><trkpt lat="39.763827258163936" lon="9.505773280513587"><ele>747.0</ele><time>2026-04-28T14:23:52.875Z</time></trkpt><trkpt lat="39.76400491636879" lon="9.505946333709915"><ele>747.0</ele><time>2026-04-28T14:23:53.875Z</time></trkpt><trkpt lat="39.764180756954644" lon="9.506117616392842"><ele>747.0</ele><time>2026-04-28T14:23:54.875Z</time></trkpt><trkpt lat="39.764356357461565" lon="9.50628857467781"><ele>747.0</ele><time>2026-04-28T14:23:55.875Z</time></trkpt><trkpt lat="39.7645346841223" lon="9.506461938833365"><ele>747.0</ele><time>2026-04-28T14:23:56.875Z</time></trkpt><trkpt lat="39.764713859942425" lon="9.506636128479961"><ele>747.0</ele><time>2026-04-28T14:23:57.875Z</time></trkpt><trkpt lat="39.76489060555886" lon="9.506807955578928"><ele>747.0</ele><time>2026-04-28T14:23:58.875Z</time></trkpt><trkpt lat="39.76506610583964" lon="9.506978571978673"><ele>746.6666666666666</ele><time>2026-04-28T14:23:59.875Z</time></trkpt><trkpt lat="39.76524448873969" lon="9.507151990753156"><ele>746.3333333333333</ele><time>2026-04-28T14:24:00.875Z</time></trkpt><trkpt lat="39.76542353801373" lon="9.507326057388303"><ele>746.0</ele><time>2026-04-28T14:24:01.875Z</time></trkpt><trkpt lat="39.76560034346982" lon="9.507497942613654"><ele>746.0</ele><time>2026-04-28T14:24:02.875Z</time></trkpt><trkpt lat="39.765780320198985" lon="9.507663229979853"><ele>746.0</ele><time>2026-04-28T14:24:03.875Z</time></trkpt><trkpt lat="39.765961786434595" lon="9.507833800209474"><ele>746.0</ele><time>2026-04-28T14:24:04.875Z</time></trkpt><trkpt lat="39.766138868386435" lon="9.508004061049961"><ele>747.0</ele><time>2026-04-28T14:24:05.875Z</time></trkpt><trkpt lat="39.76631640325113" lon="9.508173685367838"><ele>748.0</ele><time>2026-04-28T14:24:06.875Z</time></trkpt><trkpt lat="39.76649241995278" lon="9.508345898276119"><ele>749.0</ele><time>2026-04-28T14:24:07.875Z</time></trkpt><trkpt lat="39.766668178497305" lon="9.508518959442231"><ele>749.0</ele><time>2026-04-28T14:24:08.875Z</time></trkpt><trkpt lat="39.76684636436187" lon="9.508692429195282"><ele>749.0</ele><time>2026-04-28T14:24:09.875Z</time></trkpt><trkpt lat="39.76702495136827" lon="9.508868997859219"><ele>749.0</ele><time>2026-04-28T14:24:10.875Z</time></trkpt><trkpt lat="39.767205140473564" lon="9.50904631329992"><ele>747.0</ele><time>2026-04-28T14:24:11.875Z</time></trkpt><trkpt lat="39.76738710845759" lon="9.50922329037579"><ele>745.0</ele><time>2026-04-28T14:24:12.875Z</time></trkpt><trkpt lat="39.76756954272696" lon="9.509401431568053"><ele>741.0</ele><time>2026-04-28T14:24:13.875Z</time></trkpt><trkpt lat="39.76775287741435" lon="9.509579368133648"><ele>737.0</ele><time>2026-04-28T14:24:14.875Z</time></trkpt><trkpt lat="39.7679377102281" lon="9.509754460129015"><ele>737.0</ele><time>2026-04-28T14:24:15.875Z</time></trkpt><trkpt lat="39.7681246494982" lon="9.509931755969214"><ele>737.0</ele><time>2026-04-28T14:24:16.875Z</time></trkpt><trkpt lat="39.76830937147902" lon="9.510111105817645"><ele>737.0</ele><time>2026-04-28T14:24:17.875Z</time></trkpt><trkpt lat="39.768491227771854" lon="9.510289713591233"><ele>737.0</ele><time>2026-04-28T14:24:18.875Z</time></trkpt><trkpt lat="39.7686752888917" lon="9.510466311577513"><ele>738.0</ele><time>2026-04-28T14:24:19.875Z</time></trkpt><trkpt lat="39.768846152429276" lon="9.51065826543983"><ele>739.0</ele><time>2026-04-28T14:24:20.875Z</time></trkpt><trkpt lat="39.769024487326284" lon="9.510832803465023"><ele>740.0</ele><time>2026-04-28T14:24:21.875Z</time></trkpt><trkpt lat="39.769198140342155" lon="9.511002146563474"><ele>740.0</ele><time>2026-04-28T14:24:22.875Z</time></trkpt><trkpt lat="39.769355414968395" lon="9.511155467198627"><ele>740.0</ele><time>2026-04-28T14:24:23.875Z</time></trkpt><trkpt lat="39.76949634793052" lon="9.511291559994412"><ele>740.0</ele><time>2026-04-28T14:24:24.875Z</time></trkpt><trkpt lat="39.76962832476726" lon="9.511405412063585"><ele>739.75</ele><time>2026-04-28T14:24:25.875Z</time></trkpt><trkpt lat="39.769758098860244" lon="9.5114870496801"><ele>739.5</ele><time>2026-04-28T14:24:26.875Z</time></trkpt><trkpt lat="39.76989771052575" lon="9.511526870932721"><ele>739.25</ele><time>2026-04-28T14:24:27.875Z</time></trkpt><trkpt lat="39.770044821953455" lon="9.511559664672578"><ele>739.0</ele><time>2026-04-28T14:24:28.875Z</time></trkpt><trkpt lat="39.77020353832213" lon="9.51156090738277"><ele>739.0</ele><time>2026-04-28T14:24:29.875Z</time></trkpt><trkpt lat="39.770368950544814" lon="9.511539146384937"><ele>739.0</ele><time>2026-04-28T14:24:30.875Z</time></trkpt><trkpt lat="39.77053067384223" lon="9.511500776018552"><ele>739.0</ele><time>2026-04-28T14:24:31.875Z</time></trkpt><trkpt lat="39.770710841528974" lon="9.511444694225496"><ele>739.0</ele><time>2026-04-28T14:24:32.875Z</time></trkpt><trkpt lat="39.770891491663434" lon="9.511393940295891"><ele>739.0</ele><time>2026-04-28T14:24:33.875Z</time></trkpt><trkpt lat="39.771063355644564" lon="9.511352563794514"><ele>739.0</ele><time>2026-04-28T14:24:34.875Z</time></trkpt><trkpt lat="39.771222056594304" lon="9.51132300641135"><ele>738.3333333333334</ele><time>2026-04-28T14:24:35.875Z</time></trkpt><trkpt lat="39.77138546779875" lon="9.511302802321937"><ele>737.6666666666666</ele><time>2026-04-28T14:24:36.875Z</time></trkpt><trkpt lat="39.77154568294565" lon="9.51129043539302"><ele>737.0</ele><time>2026-04-28T14:24:37.875Z</time></trkpt><trkpt lat="39.77169311093077" lon="9.511288894762302"><ele>737.0</ele><time>2026-04-28T14:24:38.875Z</time></trkpt><trkpt lat="39.77182820980525" lon="9.511293321453532"><ele>737.0</ele><time>2026-04-28T14:24:39.875Z</time></trkpt><trkpt lat="39.77195097387611" lon="9.511317320022611"><ele>737.0</ele><time>2026-04-28T14:24:40.875Z</time></trkpt><trkpt lat="39.77206531061095" lon="9.511366971842008"><ele>737.0</ele><time>2026-04-28T14:24:41.875Z</time></trkpt><trkpt lat="39.772180242066725" lon="9.511445424137731"><ele>731.0</ele><time>2026-04-28T14:24:42.876Z</time></trkpt><trkpt lat="39.77230111607098" lon="9.511556441021908"><ele>725.0</ele><time>2026-04-28T14:24:43.876Z</time></trkpt><trkpt lat="39.77242575844972" lon="9.511681301198179"><ele>719.0</ele><time>2026-04-28T14:24:44.876Z</time></trkpt><trkpt lat="39.77255515640274" lon="9.511822892236648"><ele>715.6666666666666</ele><time>2026-04-28T14:24:45.876Z</time></trkpt><trkpt lat="39.772690018917245" lon="9.51196371514341"><ele>712.3333333333334</ele><time>2026-04-28T14:24:46.876Z</time></trkpt><trkpt lat="39.77282294080847" lon="9.512130362910375"><ele>709.0</ele><time>2026-04-28T14:24:47.876Z</time></trkpt><trkpt lat="39.772965652502236" lon="9.51228269651355"><ele>709.0</ele><time>2026-04-28T14:24:48.874Z</time></trkpt><trkpt lat="39.773114484398505" lon="9.512440476859451"><ele>709.0</ele><time>2026-04-28T14:24:49.875Z</time></trkpt><trkpt lat="39.77327221116319" lon="9.512608746027798"><ele>709.0</ele><time>2026-04-28T14:24:50.875Z</time></trkpt><trkpt lat="39.773418292125335" lon="9.512764967816905"><ele>705.3333333333334</ele><time>2026-04-28T14:24:51.874Z</time></trkpt><trkpt lat="39.77355072806142" lon="9.512906065864758"><ele>701.6666666666666</ele><time>2026-04-28T14:24:52.874Z</time></trkpt><trkpt lat="39.773674953907125" lon="9.513039236453931"><ele>698.0</ele><time>2026-04-28T14:24:53.874Z</time></trkpt><trkpt lat="39.773783525529495" lon="9.513167300361427"><ele>698.0</ele><time>2026-04-28T14:24:54.874Z</time></trkpt><trkpt lat="39.77387670092354" lon="9.51331425524355"><ele>698.0</ele><time>2026-04-28T14:24:55.875Z</time></trkpt><trkpt lat="39.7739579015427" lon="9.51348487386195"><ele>698.0</ele><time>2026-04-28T14:24:56.875Z</time></trkpt><trkpt lat="39.77402828763291" lon="9.51367794461019"><ele>701.3333333333333</ele><time>2026-04-28T14:24:57.874Z</time></trkpt><trkpt lat="39.77409822432607" lon="9.513881633949739"><ele>704.6666666666666</ele><time>2026-04-28T14:24:58.875Z</time></trkpt><trkpt lat="39.77416665622379" lon="9.514073660029602"><ele>708.0</ele><time>2026-04-28T14:24:59.875Z</time></trkpt><trkpt lat="39.77424097335343" lon="9.514254017258187"><ele>708.0</ele><time>2026-04-28T14:25:00.875Z</time></trkpt><trkpt lat="39.77434465603506" lon="9.514425494471235"><ele>708.0</ele><time>2026-04-28T14:25:01.874Z</time></trkpt><trkpt lat="39.774463256688094" lon="9.51457378747595"><ele>708.0</ele><time>2026-04-28T14:25:02.874Z</time></trkpt><trkpt lat="39.774600563661195" lon="9.514684417622151"><ele>704.6666666666666</ele><time>2026-04-28T14:25:03.874Z</time></trkpt><trkpt lat="39.774736938212435" lon="9.514804007377544"><ele>701.3333333333333</ele><time>2026-04-28T14:25:04.874Z</time></trkpt><trkpt lat="39.77488132598262" lon="9.514920433533037"><ele>698.0</ele><time>2026-04-28T14:25:05.874Z</time></trkpt><trkpt lat="39.775032003859714" lon="9.515039895738022"><ele>698.0</ele><time>2026-04-28T14:25:06.874Z</time></trkpt><trkpt lat="39.77518043780345" lon="9.515166669496017"><ele>698.0</ele><time>2026-04-28T14:25:07.874Z</time></trkpt><trkpt lat="39.77533235409222" lon="9.51529268864325"><ele>698.0</ele><time>2026-04-28T14:25:08.874Z</time></trkpt><trkpt lat="39.77547447056663" lon="9.515407574872173"><ele>696.75</ele><time>2026-04-28T14:25:09.874Z</time></trkpt><trkpt lat="39.77559667433917" lon="9.515521617149885"><ele>695.5</ele><time>2026-04-28T14:25:10.874Z</time></trkpt><trkpt lat="39.775707594039744" lon="9.515633176377085"><ele>694.25</ele><time>2026-04-28T14:25:11.874Z</time></trkpt><trkpt lat="39.77579240735554" lon="9.515777938899578"><ele>693.0</ele><time>2026-04-28T14:25:12.874Z</time></trkpt><trkpt lat="39.77587052100879" lon="9.51594685822146"><ele>693.0</ele><time>2026-04-28T14:25:13.874Z</time></trkpt><trkpt lat="39.77595330573753" lon="9.51612889680551"><ele>693.0</ele><time>2026-04-28T14:25:14.874Z</time></trkpt><trkpt lat="39.77603858092648" lon="9.516315663080158"><ele>693.0</ele><time>2026-04-28T14:25:15.875Z</time></trkpt><trkpt lat="39.77614074256309" lon="9.516501371579768"><ele>692.6666666666666</ele><time>2026-04-28T14:25:16.875Z</time></trkpt><trkpt lat="39.77623406333197" lon="9.516700404682503"><ele>692.3333333333333</ele><time>2026-04-28T14:25:17.875Z</time></trkpt><trkpt lat="39.77632701546065" lon="9.516910096191735"><ele>692.0</ele><time>2026-04-28T14:25:18.875Z</time></trkpt><trkpt lat="39.77642384597458" lon="9.517118630013385"><ele>691.3333333333333</ele><time>2026-04-28T14:25:19.875Z</time></trkpt><trkpt lat="39.776511635213986" lon="9.517332430965508"><ele>690.6666666666666</ele><time>2026-04-28T14:25:20.875Z</time></trkpt><trkpt lat="39.77664095496755" lon="9.517514964661029"><ele>690.0</ele><time>2026-04-28T14:25:21.875Z</time></trkpt><trkpt lat="39.7767648596109" lon="9.517698074539117"><ele>693.0</ele><time>2026-04-28T14:25:22.875Z</time></trkpt><trkpt lat="39.776896617364606" lon="9.517881365037688"><ele>696.0</ele><time>2026-04-28T14:25:23.875Z</time></trkpt><trkpt lat="39.77701724228748" lon="9.518059786433426"><ele>699.0</ele><time>2026-04-28T14:25:24.875Z</time></trkpt><trkpt lat="39.777131222244286" lon="9.518228508975305"><ele>699.0</ele><time>2026-04-28T14:25:25.875Z</time></trkpt><trkpt lat="39.77723754279303" lon="9.51837442402143"><ele>699.0</ele><time>2026-04-28T14:25:26.875Z</time></trkpt><trkpt lat="39.77733522712721" lon="9.518516086535847"><ele>699.0</ele><time>2026-04-28T14:25:27.875Z</time></trkpt><trkpt lat="39.77746282733822" lon="9.518617015126681"><ele>699.0</ele><time>2026-04-28T14:25:28.875Z</time></trkpt><trkpt lat="39.77761223390933" lon="9.518684372019917"><ele>699.0</ele><time>2026-04-28T14:25:29.875Z</time></trkpt><trkpt lat="39.77778723925237" lon="9.518759431771588"><ele>699.0</ele><time>2026-04-28T14:25:30.875Z</time></trkpt><trkpt lat="39.77797535190085" lon="9.518826984926733"><ele>700.3333333333334</ele><time>2026-04-28T14:25:31.875Z</time></trkpt><trkpt lat="39.778156633806994" lon="9.518909912178133"><ele>701.6666666666667</ele><time>2026-04-28T14:25:32.875Z</time></trkpt><trkpt lat="39.7783367253576" lon="9.518983213583393"><ele>703.0</ele><time>2026-04-28T14:25:33.875Z</time></trkpt><trkpt lat="39.77851625356726" lon="9.519056285247002"><ele>703.6666666666667</ele><time>2026-04-28T14:25:34.875Z</time></trkpt><trkpt lat="39.77870252980636" lon="9.519132999342611"><ele>704.3333333333334</ele><time>2026-04-28T14:25:35.875Z</time></trkpt><trkpt lat="39.77888203738251" lon="9.519206165536716"><ele>705.0</ele><time>2026-04-28T14:25:36.875Z</time></trkpt><trkpt lat="39.779043931789495" lon="9.519269203020302"><ele>705.0</ele><time>2026-04-28T14:25:37.875Z</time></trkpt><trkpt lat="39.779204762206305" lon="9.519313699296317"><ele>705.0</ele><time>2026-04-28T14:25:38.875Z</time></trkpt><trkpt lat="39.77933897054018" lon="9.51933060340955"><ele>705.0</ele><time>2026-04-28T14:25:39.875Z</time></trkpt><trkpt lat="39.779450352400545" lon="9.519262651910248"><ele>705.0</ele><time>2026-04-28T14:25:40.875Z</time></trkpt><trkpt lat="39.77953426580646" lon="9.519261185886364"><ele>704.8</ele><time>2026-04-28T14:25:41.875Z</time></trkpt><trkpt lat="39.779647520750615" lon="9.519232830953246"><ele>704.6</ele><time>2026-04-28T14:25:42.875Z</time></trkpt><trkpt lat="39.779685743755934" lon="9.519364564476389"><ele>704.4000000000001</ele><time>2026-04-28T14:25:44.875Z</time></trkpt><trkpt lat="39.77963793602412" lon="9.519307292604077"><ele>704.2</ele><time>2026-04-28T14:25:56.875Z</time></trkpt><trkpt lat="39.77954285217369" lon="9.519297044938806"><ele>704.0</ele><time>2026-04-28T14:25:58.875Z</time></trkpt><trkpt lat="39.779440460783555" lon="9.519299132733149"><ele>704.0</ele><time>2026-04-28T14:26:00.875Z</time></trkpt><trkpt lat="39.77937725884385" lon="9.519298725501615"><ele>704.0</ele><time>2026-04-28T14:26:01.875Z</time></trkpt><trkpt lat="39.77931408676145" lon="9.51929699227412"><ele>704.0</ele><time>2026-04-28T14:26:02.875Z</time></trkpt><trkpt lat="39.779250975496524" lon="9.519289920400311"><ele>704.0</ele><time>2026-04-28T14:26:03.875Z</time></trkpt><trkpt lat="39.7791574957434" lon="9.519269719226925"><ele>704.0</ele><time>2026-04-28T14:26:05.875Z</time></trkpt><trkpt lat="39.779093877396654" lon="9.519326374447175"><ele>704.0</ele><time>2026-04-28T14:26:08.875Z</time></trkpt><trkpt lat="39.77915531310636" lon="9.519383388344036"><ele>704.0</ele><time>2026-04-28T14:26:11.875Z</time></trkpt><trkpt lat="39.77925919339856" lon="9.51938662654197"><ele>704.0</ele><time>2026-04-28T14:26:13.875Z</time></trkpt><trkpt lat="39.77939562712289" lon="9.519370367430287"><ele>704.0</ele><time>2026-04-28T14:26:15.875Z</time></trkpt><trkpt lat="39.779475859896266" lon="9.519389047743083"><ele>704.0</ele><time>2026-04-28T14:26:16.875Z</time></trkpt><trkpt lat="39.7795725408837" lon="9.519417070154502"><ele>704.0</ele><time>2026-04-28T14:26:17.875Z</time></trkpt><trkpt lat="39.77966689985164" lon="9.519451807418593"><ele>704.0</ele><time>2026-04-28T14:26:18.875Z</time></trkpt><trkpt lat="39.77977516754856" lon="9.519472717273988"><ele>704.0</ele><time>2026-04-28T14:26:19.875Z</time></trkpt><trkpt lat="39.779882950467275" lon="9.519481065074888"><ele>704.0</ele><time>2026-04-28T14:26:20.875Z</time></trkpt><trkpt lat="39.77997400730699" lon="9.519492118322905"><ele>704.0</ele><time>2026-04-28T14:26:21.875Z</time></trkpt><trkpt lat="39.78005860969864" lon="9.51949008257988"><ele>704.0</ele><time>2026-04-28T14:26:22.875Z</time></trkpt><trkpt lat="39.780121640307" lon="9.51952189643838"><ele>704.0</ele><time>2026-04-28T14:26:23.875Z</time></trkpt><trkpt lat="39.7802173340665" lon="9.519571313773927"><ele>700.5</ele><time>2026-04-28T14:26:25.875Z</time></trkpt><trkpt lat="39.78031794849369" lon="9.519469534786268"><ele>697.0</ele><time>2026-04-28T14:26:27.875Z</time></trkpt><trkpt lat="39.78040339953327" lon="9.519445572702985"><ele>693.5</ele><time>2026-04-28T14:26:28.875Z</time></trkpt><trkpt lat="39.78050203145364" lon="9.519407384125168"><ele>690.0</ele><time>2026-04-28T14:26:29.875Z</time></trkpt><trkpt lat="39.78067974507836" lon="9.519561376377228"><ele>690.0</ele><time>2026-04-28T14:26:30.875Z</time></trkpt><trkpt lat="39.78080509259826" lon="9.519561356397066"><ele>690.0</ele><time>2026-04-28T14:26:31.875Z</time></trkpt><trkpt lat="39.78091079151446" lon="9.519546755977474"><ele>690.0</ele><time>2026-04-28T14:26:32.875Z</time></trkpt><trkpt lat="39.7810065820558" lon="9.51950667274555"><ele>690.0</ele><time>2026-04-28T14:26:33.875Z</time></trkpt><trkpt lat="39.781159605044415" lon="9.519546532817628"><ele>684.2</ele><time>2026-04-28T14:26:34.875Z</time></trkpt><trkpt lat="39.781257500751714" lon="9.519461870006626"><ele>678.4</ele><time>2026-04-28T14:26:35.875Z</time></trkpt><trkpt lat="39.78135165131979" lon="9.519380826426826"><ele>672.5999999999999</ele><time>2026-04-28T14:26:36.875Z</time></trkpt><trkpt lat="39.781444781289835" lon="9.519311361532706"><ele>666.8</ele><time>2026-04-28T14:26:37.875Z</time></trkpt><trkpt lat="39.78154017936962" lon="9.51924793974801"><ele>661.0</ele><time>2026-04-28T14:26:38.875Z</time></trkpt><trkpt lat="39.78162898369397" lon="9.519191584316586"><ele>661.0</ele><time>2026-04-28T14:26:39.876Z</time></trkpt><trkpt lat="39.78171473360831" lon="9.519128379397037"><ele>661.0</ele><time>2026-04-28T14:26:40.876Z</time></trkpt><trkpt lat="39.78178828310497" lon="9.519032528985703"><ele>661.0</ele><time>2026-04-28T14:26:41.876Z</time></trkpt><trkpt lat="39.78186042260505" lon="9.518925970962911"><ele>661.0</ele><time>2026-04-28T14:26:42.876Z</time></trkpt><trkpt lat="39.781936259298305" lon="9.518809302852762"><ele>661.0</ele><time>2026-04-28T14:26:43.876Z</time></trkpt><trkpt lat="39.7820084565714" lon="9.518689363988088"><ele>658.4</ele><time>2026-04-28T14:26:44.876Z</time></trkpt><trkpt lat="39.782048277381236" lon="9.518545189409421"><ele>655.8</ele><time>2026-04-28T14:26:45.876Z</time></trkpt><trkpt lat="39.78209567683049" lon="9.518451202049269"><ele>653.1999999999999</ele><time>2026-04-28T14:26:46.876Z</time></trkpt><trkpt lat="39.782155816070905" lon="9.518392047645127"><ele>650.5999999999999</ele><time>2026-04-28T14:26:47.876Z</time></trkpt><trkpt lat="39.7822347911383" lon="9.51832248766483"><ele>648.0</ele><time>2026-04-28T14:26:48.876Z</time></trkpt><trkpt lat="39.78232315884216" lon="9.518228821395509"><ele>648.0</ele><time>2026-04-28T14:26:49.876Z</time></trkpt><trkpt lat="39.78243281525338" lon="9.518149916720498"><ele>648.0</ele><time>2026-04-28T14:26:50.876Z</time></trkpt><trkpt lat="39.78252154039002" lon="9.518072658383488"><ele>648.0</ele><time>2026-04-28T14:26:51.876Z</time></trkpt><trkpt lat="39.782589477778565" lon="9.518000674747658"><ele>648.0</ele><time>2026-04-28T14:26:52.876Z</time></trkpt><trkpt lat="39.78266077145445" lon="9.517925439913"><ele>648.0</ele><time>2026-04-28T14:26:53.876Z</time></trkpt><trkpt lat="39.78270049037485" lon="9.517781730754448"><ele>643.0</ele><time>2026-04-28T14:26:54.875Z</time></trkpt><trkpt lat="39.78275228405939" lon="9.517651477857582"><ele>638.0</ele><time>2026-04-28T14:26:55.875Z</time></trkpt><trkpt lat="39.782815034298345" lon="9.51751099634344"><ele>633.0</ele><time>2026-04-28T14:26:56.875Z</time></trkpt><trkpt lat="39.78288605551464" lon="9.517367846427744"><ele>628.0</ele><time>2026-04-28T14:26:57.875Z</time></trkpt><trkpt lat="39.78296183920493" lon="9.517231219634331"><ele>628.0</ele><time>2026-04-28T14:26:58.875Z</time></trkpt><trkpt lat="39.783031961799686" lon="9.517110961896876"><ele>628.0</ele><time>2026-04-28T14:26:59.875Z</time></trkpt><trkpt lat="39.78308724531208" lon="9.5170123164947"><ele>628.0</ele><time>2026-04-28T14:27:00.875Z</time></trkpt><trkpt lat="39.783137818950664" lon="9.516935301965653"><ele>628.0</ele><time>2026-04-28T14:27:01.875Z</time></trkpt><trkpt lat="39.7832842343038" lon="9.516917512417876"><ele>628.0</ele><time>2026-04-28T14:27:03.875Z</time></trkpt><trkpt lat="39.78339297895026" lon="9.51688368085801"><ele>628.1999999999999</ele><time>2026-04-28T14:27:04.875Z</time></trkpt><trkpt lat="39.783495888016304" lon="9.516813850973108"><ele>628.4</ele><time>2026-04-28T14:27:05.875Z</time></trkpt><trkpt lat="39.78357523075828" lon="9.516730531695748"><ele>628.5999999999999</ele><time>2026-04-28T14:27:06.875Z</time></trkpt><trkpt lat="39.78364715213142" lon="9.516666083724402"><ele>628.8</ele><time>2026-04-28T14:27:07.875Z</time></trkpt><trkpt lat="39.78373538301478" lon="9.516677207926412"><ele>629.0</ele><time>2026-04-28T14:27:08.875Z</time></trkpt><trkpt lat="39.78381730254507" lon="9.516653392747225"><ele>629.0</ele><time>2026-04-28T14:27:09.875Z</time></trkpt><trkpt lat="39.783893577105005" lon="9.51663156241234"><ele>629.0</ele><time>2026-04-28T14:27:10.875Z</time></trkpt><trkpt lat="39.783998177390345" lon="9.516583738147942"><ele>629.0</ele><time>2026-04-28T14:27:12.875Z</time></trkpt><trkpt lat="39.784092223598996" lon="9.516545993644016"><ele>629.0</ele><time>2026-04-28T14:27:14.875Z</time></trkpt><trkpt lat="39.78423144265374" lon="9.516518012378164"><ele>629.0</ele><time>2026-04-28T14:27:16.875Z</time></trkpt><trkpt lat="39.784325688252835" lon="9.51657516268165"><ele>626.25</ele><time>2026-04-28T14:27:17.875Z</time></trkpt><trkpt lat="39.78444143938367" lon="9.516556712292081"><ele>623.5</ele><time>2026-04-28T14:27:18.875Z</time></trkpt><trkpt lat="39.78459660662695" lon="9.51652532477686"><ele>620.75</ele><time>2026-04-28T14:27:19.875Z</time></trkpt><trkpt lat="39.78471712058145" lon="9.516598521897683"><ele>618.0</ele><time>2026-04-28T14:27:20.875Z</time></trkpt><trkpt lat="39.78483977314332" lon="9.516617687885196"><ele>618.0</ele><time>2026-04-28T14:27:21.875Z</time></trkpt><trkpt lat="39.784957829972754" lon="9.51666167640396"><ele>618.0</ele><time>2026-04-28T14:27:22.875Z</time></trkpt><trkpt lat="39.785071791243794" lon="9.516709109084909"><ele>618.0</ele><time>2026-04-28T14:27:23.875Z</time></trkpt><trkpt lat="39.78516976652188" lon="9.516794361869376"><ele>618.0</ele><time>2026-04-28T14:27:24.875Z</time></trkpt><trkpt lat="39.78530673069199" lon="9.516818764510704"><ele>615.75</ele><time>2026-04-28T14:27:25.875Z</time></trkpt><trkpt lat="39.78542524825427" lon="9.516831764305195"><ele>613.5</ele><time>2026-04-28T14:27:26.875Z</time></trkpt><trkpt lat="39.785550204557445" lon="9.51688026325343"><ele>611.25</ele><time>2026-04-28T14:27:27.875Z</time></trkpt><trkpt lat="39.78566756465483" lon="9.516940236328768"><ele>609.0</ele><time>2026-04-28T14:27:28.875Z</time></trkpt><trkpt lat="39.78579034045915" lon="9.516996450134377"><ele>609.0</ele><time>2026-04-28T14:27:29.875Z</time></trkpt><trkpt lat="39.785911200620966" lon="9.51701264221859"><ele>609.0</ele><time>2026-04-28T14:27:30.875Z</time></trkpt><trkpt lat="39.78603480324591" lon="9.517009947592033"><ele>609.0</ele><time>2026-04-28T14:27:31.875Z</time></trkpt><trkpt lat="39.786154688894854" lon="9.517012951448546"><ele>609.0</ele><time>2026-04-28T14:27:32.875Z</time></trkpt><trkpt lat="39.7862873716223" lon="9.517016923339215"><ele>606.25</ele><time>2026-04-28T14:27:33.875Z</time></trkpt><trkpt lat="39.78642593407783" lon="9.516990641797332"><ele>603.5</ele><time>2026-04-28T14:27:34.875Z</time></trkpt><trkpt lat="39.7865508336612" lon="9.516960072656193"><ele>600.75</ele><time>2026-04-28T14:27:35.875Z</time></trkpt><trkpt lat="39.786679938937105" lon="9.516925228856186"><ele>598.0</ele><time>2026-04-28T14:27:36.875Z</time></trkpt><trkpt lat="39.7867974272947" lon="9.516870117206683"><ele>595.1999999999999</ele><time>2026-04-28T14:27:37.875Z</time></trkpt><trkpt lat="39.78691011087816" lon="9.516852944406677"><ele>592.4</ele><time>2026-04-28T14:27:38.875Z</time></trkpt><trkpt lat="39.78700754555421" lon="9.516840210274536"><ele>589.5999999999999</ele><time>2026-04-28T14:27:39.875Z</time></trkpt><trkpt lat="39.787102129834764" lon="9.516847339342165"><ele>586.8</ele><time>2026-04-28T14:27:40.875Z</time></trkpt><trkpt lat="39.787183687097794" lon="9.516900846653666"><ele>584.0</ele><time>2026-04-28T14:27:41.876Z</time></trkpt><trkpt lat="39.78727116036962" lon="9.516950525249422"><ele>584.0</ele><time>2026-04-28T14:27:42.876Z</time></trkpt><trkpt lat="39.78736987340536" lon="9.516991087946245"><ele>584.0</ele><time>2026-04-28T14:27:43.876Z</time></trkpt><trkpt lat="39.787466592903066" lon="9.517021293586792"><ele>584.0</ele><time>2026-04-28T14:27:44.876Z</time></trkpt><trkpt lat="39.78755878095398" lon="9.517034200160907"><ele>584.0</ele><time>2026-04-28T14:27:45.876Z</time></trkpt><trkpt lat="39.787643574276416" lon="9.516998474365604"><ele>584.0</ele><time>2026-04-28T14:27:46.876Z</time></trkpt><trkpt lat="39.78771332667856" lon="9.516936168264985"><ele>580.0</ele><time>2026-04-28T14:27:47.876Z</time></trkpt><trkpt lat="39.78778615930649" lon="9.516874495758143"><ele>576.0</ele><time>2026-04-28T14:27:48.876Z</time></trkpt><trkpt lat="39.78786144077496" lon="9.51679526352483"><ele>572.0</ele><time>2026-04-28T14:27:49.876Z</time></trkpt><trkpt lat="39.78794343182604" lon="9.516748594470627"><ele>568.0</ele><time>2026-04-28T14:27:50.876Z</time></trkpt><trkpt lat="39.78802102384626" lon="9.516707347892034"><ele>564.0</ele><time>2026-04-28T14:27:51.876Z</time></trkpt><trkpt lat="39.78810183432843" lon="9.516674058047796"><ele>560.0</ele><time>2026-04-28T14:27:52.876Z</time></trkpt><trkpt lat="39.7882323783806" lon="9.5166389553944"><ele>560.0</ele><time>2026-04-28T14:27:54.876Z</time></trkpt><trkpt lat="39.788313488237804" lon="9.516661118664443"><ele>560.0</ele><time>2026-04-28T14:27:55.876Z</time></trkpt><trkpt lat="39.78840346489728" lon="9.516716117835179"><ele>560.0</ele><time>2026-04-28T14:27:56.876Z</time></trkpt><trkpt lat="39.78848670346831" lon="9.516777519764087"><ele>560.0</ele><time>2026-04-28T14:27:57.876Z</time></trkpt><trkpt lat="39.7885715110603" lon="9.516831447909379"><ele>560.0</ele><time>2026-04-28T14:27:58.876Z</time></trkpt><trkpt lat="39.78864485389244" lon="9.516860763740757"><ele>560.0</ele><time>2026-04-28T14:27:59.876Z</time></trkpt><trkpt lat="39.788720721118395" lon="9.51686699359259"><ele>559.1666666666666</ele><time>2026-04-28T14:28:00.876Z</time></trkpt><trkpt lat="39.78879938901027" lon="9.516844561401651"><ele>558.3333333333333</ele><time>2026-04-28T14:28:01.876Z</time></trkpt><trkpt lat="39.78884979394336" lon="9.516773855821226"><ele>557.5</ele><time>2026-04-28T14:28:02.876Z</time></trkpt><trkpt lat="39.78895190706989" lon="9.516740465012022"><ele>556.6666666666666</ele><time>2026-04-28T14:28:04.876Z</time></trkpt><trkpt lat="39.78901309739695" lon="9.516819538213102"><ele>555.8333333333334</ele><time>2026-04-28T14:28:06.876Z</time></trkpt><trkpt lat="39.78907922917042" lon="9.51689464304237"><ele>555.0</ele><time>2026-04-28T14:28:08.876Z</time></trkpt><trkpt lat="39.78885835196091" lon="9.516928148681853"><ele>555.0</ele><time>2026-04-28T14:28:10.876Z</time></trkpt><trkpt lat="39.78875932360226" lon="9.516998672557426"><ele>555.0</ele><time>2026-04-28T14:28:11.876Z</time></trkpt><trkpt lat="39.78866318644877" lon="9.517089356655577"><ele>555.0</ele><time>2026-04-28T14:28:12.876Z</time></trkpt><trkpt lat="39.78854304372048" lon="9.517187875614853"><ele>555.0</ele><time>2026-04-28T14:28:13.876Z</time></trkpt><trkpt lat="39.78841727351112" lon="9.517308500603002"><ele>549.0</ele><time>2026-04-28T14:28:14.876Z</time></trkpt><trkpt lat="39.788290214615046" lon="9.517414158400722"><ele>543.0</ele><time>2026-04-28T14:28:15.876Z</time></trkpt><trkpt lat="39.788152056319355" lon="9.517531532797548"><ele>537.0</ele><time>2026-04-28T14:28:16.876Z</time></trkpt><trkpt lat="39.78800822604695" lon="9.517657574278427"><ele>537.0</ele><time>2026-04-28T14:28:17.876Z</time></trkpt><trkpt lat="39.78786308252258" lon="9.517786867697756"><ele>537.0</ele><time>2026-04-28T14:28:18.876Z</time></trkpt><trkpt lat="39.78771727229483" lon="9.517920318409052"><ele>537.0</ele><time>2026-04-28T14:28:19.876Z</time></trkpt><trkpt lat="39.78758281522896" lon="9.518045911934184"><ele>533.6666666666666</ele><time>2026-04-28T14:28:20.876Z</time></trkpt><trkpt lat="39.787443476347924" lon="9.518169155617448"><ele>530.3333333333333</ele><time>2026-04-28T14:28:21.876Z</time></trkpt><trkpt lat="39.78729730249391" lon="9.51828314414699"><ele>527.0</ele><time>2026-04-28T14:28:22.876Z</time></trkpt><trkpt lat="39.78713781603561" lon="9.518383803195936"><ele>527.0</ele><time>2026-04-28T14:28:23.876Z</time></trkpt><trkpt lat="39.78696932912389" lon="9.518470738188986"><ele>527.0</ele><time>2026-04-28T14:28:24.876Z</time></trkpt><trkpt lat="39.786805660552" lon="9.518547429747008"><ele>527.0</ele><time>2026-04-28T14:28:25.876Z</time></trkpt><trkpt lat="39.786652696637056" lon="9.51864055427709"><ele>521.0</ele><time>2026-04-28T14:28:26.876Z</time></trkpt><trkpt lat="39.78651319044298" lon="9.518755286837292"><ele>515.0</ele><time>2026-04-28T14:28:27.876Z</time></trkpt><trkpt lat="39.78637724962922" lon="9.518864736566655"><ele>509.0</ele><time>2026-04-28T14:28:28.876Z</time></trkpt><trkpt lat="39.78624874631508" lon="9.51899678237532"><ele>509.0</ele><time>2026-04-28T14:28:29.876Z</time></trkpt><trkpt lat="39.78612471184054" lon="9.519137652817049"><ele>509.0</ele><time>2026-04-28T14:28:30.876Z</time></trkpt><trkpt lat="39.786006435697495" lon="9.519285323732163"><ele>509.0</ele><time>2026-04-28T14:28:31.876Z</time></trkpt><trkpt lat="39.78589217238548" lon="9.51942752005062"><ele>509.0</ele><time>2026-04-28T14:28:32.876Z</time></trkpt><trkpt lat="39.78577979917422" lon="9.519567017418382"><ele>509.0</ele><time>2026-04-28T14:28:33.876Z</time></trkpt><trkpt lat="39.78567656232421" lon="9.519699404555466"><ele>509.0</ele><time>2026-04-28T14:28:34.876Z</time></trkpt><trkpt lat="39.78557895708892" lon="9.519832359647857"><ele>509.0</ele><time>2026-04-28T14:28:35.876Z</time></trkpt><trkpt lat="39.78550384008308" lon="9.519948690602037"><ele>509.0</ele><time>2026-04-28T14:28:36.876Z</time></trkpt><trkpt lat="39.78544458613641" lon="9.520063171912488"><ele>509.0</ele><time>2026-04-28T14:28:37.876Z</time></trkpt><trkpt lat="39.785416855170396" lon="9.520185469122884"><ele>509.0</ele><time>2026-04-28T14:28:38.876Z</time></trkpt><trkpt lat="39.785415702271585" lon="9.520318186882097"><ele>509.0</ele><time>2026-04-28T14:28:39.876Z</time></trkpt><trkpt lat="39.785436787343365" lon="9.520460419619171"><ele>509.0</ele><time>2026-04-28T14:28:40.876Z</time></trkpt><trkpt lat="39.78547463399491" lon="9.520620914537641"><ele>508.5</ele><time>2026-04-28T14:28:41.876Z</time></trkpt><trkpt lat="39.78552579722623" lon="9.520776962850006"><ele>508.0</ele><time>2026-04-28T14:28:42.876Z</time></trkpt><trkpt lat="39.785592696445605" lon="9.52095195034741"><ele>507.5</ele><time>2026-04-28T14:28:43.876Z</time></trkpt><trkpt lat="39.78566497835498" lon="9.521130245973493"><ele>507.0</ele><time>2026-04-28T14:28:44.876Z</time></trkpt><trkpt lat="39.785740763083034" lon="9.521318438702993"><ele>507.0</ele><time>2026-04-28T14:28:45.876Z</time></trkpt><trkpt lat="39.78582017957384" lon="9.521516099089993"><ele>507.0</ele><time>2026-04-28T14:28:46.876Z</time></trkpt><trkpt lat="39.785902762718884" lon="9.521722113226955"><ele>507.0</ele><time>2026-04-28T14:28:47.876Z</time></trkpt><trkpt lat="39.785986834468815" lon="9.521933153456041"><ele>496.0</ele><time>2026-04-28T14:28:48.876Z</time></trkpt><trkpt lat="39.786067631482496" lon="9.52213991151043"><ele>485.0</ele><time>2026-04-28T14:28:49.876Z</time></trkpt><trkpt lat="39.78615193835691" lon="9.522348183410005"><ele>474.0</ele><time>2026-04-28T14:28:50.876Z</time></trkpt><trkpt lat="39.78623802093081" lon="9.522561510677402"><ele>474.0</ele><time>2026-04-28T14:28:51.876Z</time></trkpt><trkpt lat="39.78632611994067" lon="9.522771235482693"><ele>474.0</ele><time>2026-04-28T14:28:52.876Z</time></trkpt><trkpt lat="39.78640963670316" lon="9.52298442464798"><ele>474.0</ele><time>2026-04-28T14:28:53.876Z</time></trkpt><trkpt lat="39.786496077170966" lon="9.523193649948146"><ele>476.33333333333337</ele><time>2026-04-28T14:28:54.876Z</time></trkpt><trkpt lat="39.78658417922865" lon="9.523406123987614"><ele>478.6666666666667</ele><time>2026-04-28T14:28:55.876Z</time></trkpt><trkpt lat="39.78666599185703" lon="9.523608063128963"><ele>481.0</ele><time>2026-04-28T14:28:56.876Z</time></trkpt><trkpt lat="39.78674467136847" lon="9.52380327703803"><ele>483.6666666666667</ele><time>2026-04-28T14:28:57.876Z</time></trkpt><trkpt lat="39.78681939089824" lon="9.523996720752631"><ele>486.33333333333337</ele><time>2026-04-28T14:28:58.876Z</time></trkpt><trkpt lat="39.78688955433749" lon="9.52418676737286"><ele>489.0</ele><time>2026-04-28T14:28:59.876Z</time></trkpt><trkpt lat="39.78694838245722" lon="9.524374487996958"><ele>480.25</ele><time>2026-04-28T14:29:00.876Z</time></trkpt><trkpt lat="39.78698931328808" lon="9.524560789242006"><ele>471.5</ele><time>2026-04-28T14:29:01.876Z</time></trkpt><trkpt lat="39.78701428571231" lon="9.524734279022061"><ele>462.75</ele><time>2026-04-28T14:29:02.876Z</time></trkpt><trkpt lat="39.78703075625913" lon="9.524887868894114"><ele>454.0</ele><time>2026-04-28T14:29:03.876Z</time></trkpt><trkpt lat="39.787053431859185" lon="9.525036806162184"><ele>454.00000000000006</ele><time>2026-04-28T14:29:04.876Z</time></trkpt><trkpt lat="39.78707378280158" lon="9.525157299817822"><ele>454.0</ele><time>2026-04-28T14:29:05.876Z</time></trkpt><trkpt lat="39.78709460944732" lon="9.525251696765178"><ele>454.0</ele><time>2026-04-28T14:29:06.876Z</time></trkpt><trkpt lat="39.78713200394759" lon="9.525376595266078"><ele>454.0</ele><time>2026-04-28T14:29:08.876Z</time></trkpt><trkpt lat="39.78717566991811" lon="9.525481387196484"><ele>454.00000000000006</ele><time>2026-04-28T14:29:10.876Z</time></trkpt><trkpt lat="39.78721626220058" lon="9.525577066361445"><ele>454.0</ele><time>2026-04-28T14:29:12.876Z</time></trkpt><trkpt lat="39.78725151637169" lon="9.52569344850972"><ele>455.1666666666667</ele><time>2026-04-28T14:29:14.876Z</time></trkpt><trkpt lat="39.78730276911539" lon="9.525834062755068"><ele>456.33333333333337</ele><time>2026-04-28T14:29:16.876Z</time></trkpt><trkpt lat="39.78734029814731" lon="9.525906942276256"><ele>457.5</ele><time>2026-04-28T14:29:17.875Z</time></trkpt><trkpt lat="39.78738484660132" lon="9.525966192424876"><ele>458.66666666666663</ele><time>2026-04-28T14:29:18.875Z</time></trkpt><trkpt lat="39.78750086144056" lon="9.526017477994827"><ele>459.8333333333333</ele><time>2026-04-28T14:29:20.874Z</time></trkpt><trkpt lat="39.78757210972452" lon="9.526027550728381"><ele>461.0</ele><time>2026-04-28T14:29:21.874Z</time></trkpt><trkpt lat="39.78764432311365" lon="9.525974846871947"><ele>460.99999999999994</ele><time>2026-04-28T14:29:22.874Z</time></trkpt><trkpt lat="39.78769766522395" lon="9.52590535375867"><ele>461.0</ele><time>2026-04-28T14:29:23.874Z</time></trkpt><trkpt lat="39.7877272456715" lon="9.525805940633742"><ele>461.0</ele><time>2026-04-28T14:29:24.873Z</time></trkpt><trkpt lat="39.78771832637746" lon="9.52569727345057"><ele>461.0</ele><time>2026-04-28T14:29:25.873Z</time></trkpt><trkpt lat="39.78768125993186" lon="9.525597031404697"><ele>460.99999999999994</ele><time>2026-04-28T14:29:26.873Z</time></trkpt><trkpt lat="39.787632745912994" lon="9.525497216097099"><ele>461.0</ele><time>2026-04-28T14:29:27.873Z</time></trkpt><trkpt lat="39.787579507010015" lon="9.525369750975885"><ele>459.25</ele><time>2026-04-28T14:29:28.873Z</time></trkpt><trkpt lat="39.78752001860642" lon="9.525236595460605"><ele>457.5</ele><time>2026-04-28T14:29:29.872Z</time></trkpt><trkpt lat="39.78748970715044" lon="9.52507390573597"><ele>455.75</ele><time>2026-04-28T14:29:30.872Z</time></trkpt><trkpt lat="39.78747267937353" lon="9.524897039785149"><ele>454.0</ele><time>2026-04-28T14:29:31.872Z</time></trkpt><trkpt lat="39.787451872329775" lon="9.52471544409606"><ele>451.5</ele><time>2026-04-28T14:29:32.872Z</time></trkpt><trkpt lat="39.78743722776886" lon="9.524526449892166"><ele>449.0</ele><time>2026-04-28T14:29:33.872Z</time></trkpt><trkpt lat="39.78742562909868" lon="9.524334669349956"><ele>446.5</ele><time>2026-04-28T14:29:34.872Z</time></trkpt><trkpt lat="39.787412171867466" lon="9.524144642062174"><ele>444.0</ele><time>2026-04-28T14:29:35.872Z</time></trkpt><trkpt lat="39.787396503182535" lon="9.5239576171751"><ele>444.0</ele><time>2026-04-28T14:29:36.872Z</time></trkpt><trkpt lat="39.787379948041256" lon="9.523776724657855"><ele>444.0</ele><time>2026-04-28T14:29:37.872Z</time></trkpt><trkpt lat="39.78735264188053" lon="9.523603806173826"><ele>444.0</ele><time>2026-04-28T14:29:38.871Z</time></trkpt><trkpt lat="39.78731896261827" lon="9.523440601158558"><ele>444.0</ele><time>2026-04-28T14:29:39.871Z</time></trkpt><trkpt lat="39.78727356388174" lon="9.52329396615176"><ele>442.2</ele><time>2026-04-28T14:29:40.871Z</time></trkpt><trkpt lat="39.78721965070551" lon="9.523155258090094"><ele>440.4</ele><time>2026-04-28T14:29:41.871Z</time></trkpt><trkpt lat="39.7871805190249" lon="9.523027498768109"><ele>438.6</ele><time>2026-04-28T14:29:42.871Z</time></trkpt><trkpt lat="39.78715672359695" lon="9.52289635324167"><ele>436.8</ele><time>2026-04-28T14:29:43.871Z</time></trkpt><trkpt lat="39.787149488759056" lon="9.52276339575807"><ele>435.0</ele><time>2026-04-28T14:29:44.871Z</time></trkpt><trkpt lat="39.787158226287254" lon="9.522632921141925"><ele>435.0</ele><time>2026-04-28T14:29:45.871Z</time></trkpt><trkpt lat="39.78719604273066" lon="9.522515219252828"><ele>435.0</ele><time>2026-04-28T14:29:46.871Z</time></trkpt><trkpt lat="39.787220871771936" lon="9.522392328334405"><ele>435.0</ele><time>2026-04-28T14:29:47.871Z</time></trkpt><trkpt lat="39.78724264551084" lon="9.522267159626361"><ele>435.0</ele><time>2026-04-28T14:29:48.871Z</time></trkpt><trkpt lat="39.787258659648245" lon="9.522145216793247"><ele>435.0</ele><time>2026-04-28T14:29:49.871Z</time></trkpt><trkpt lat="39.78726794413872" lon="9.522026703522673"><ele>436.0</ele><time>2026-04-28T14:29:50.871Z</time></trkpt><trkpt lat="39.78727202014686" lon="9.52191179643675"><ele>437.0</ele><time>2026-04-28T14:29:51.871Z</time></trkpt><trkpt lat="39.78727446934547" lon="9.521795474753906"><ele>438.0</ele><time>2026-04-28T14:29:52.871Z</time></trkpt><trkpt lat="39.78727717127653" lon="9.521671733363089"><ele>439.0</ele><time>2026-04-28T14:29:53.871Z</time></trkpt><trkpt lat="39.78727502986759" lon="9.521540222963132"><ele>440.0</ele><time>2026-04-28T14:29:54.871Z</time></trkpt><trkpt lat="39.787261341625246" lon="9.521424202602303"><ele>440.0</ele><time>2026-04-28T14:29:55.871Z</time></trkpt><trkpt lat="39.787237320176374" lon="9.52131916950698"><ele>440.0</ele><time>2026-04-28T14:29:56.871Z</time></trkpt><trkpt lat="39.78722209381443" lon="9.521220098868973"><ele>440.0</ele><time>2026-04-28T14:29:57.871Z</time></trkpt><trkpt lat="39.787228737475175" lon="9.521060449239219"><ele>440.0</ele><time>2026-04-28T14:29:59.871Z</time></trkpt><trkpt lat="39.78729342496481" lon="9.520949901530104"><ele>440.0</ele><time>2026-04-28T14:30:01.871Z</time></trkpt><trkpt lat="39.787406871753156" lon="9.520933685045996"><ele>441.6</ele><time>2026-04-28T14:30:03.871Z</time></trkpt><trkpt lat="39.78747756855876" lon="9.520929419518954"><ele>443.2</ele><time>2026-04-28T14:30:04.871Z</time></trkpt><trkpt lat="39.78755145610627" lon="9.520932008389552"><ele>444.79999999999995</ele><time>2026-04-28T14:30:05.871Z</time></trkpt><trkpt lat="39.787618076385186" lon="9.520935151145553"><ele>446.4</ele><time>2026-04-28T14:30:06.871Z</time></trkpt><trkpt lat="39.78773280346014" lon="9.520996936053253"><ele>448.0</ele><time>2026-04-28T14:30:08.871Z</time></trkpt><trkpt lat="39.7878134060568" lon="9.521105502469018"><ele>446.4</ele><time>2026-04-28T14:30:10.871Z</time></trkpt><trkpt lat="39.78782586512474" lon="9.521245437702493"><ele>444.79999999999995</ele><time>2026-04-28T14:30:12.871Z</time></trkpt><trkpt lat="39.787780350168156" lon="9.521397342593463"><ele>443.2</ele><time>2026-04-28T14:30:14.871Z</time></trkpt><trkpt lat="39.787740629811445" lon="9.521464754414438"><ele>441.6</ele><time>2026-04-28T14:30:15.871Z</time></trkpt><trkpt lat="39.78770283067621" lon="9.521533776500288"><ele>440.0</ele><time>2026-04-28T14:30:16.871Z</time></trkpt><trkpt lat="39.787633091939384" lon="9.521663583687655"><ele>440.0</ele><time>2026-04-28T14:30:18.871Z</time></trkpt><trkpt lat="39.78757175400111" lon="9.521797348840948"><ele>440.0</ele><time>2026-04-28T14:30:20.871Z</time></trkpt><trkpt lat="39.78751293991432" lon="9.521924762438108"><ele>440.0</ele><time>2026-04-28T14:30:22.871Z</time></trkpt><trkpt lat="39.78746784479258" lon="9.522080714353647"><ele>440.0</ele><time>2026-04-28T14:30:24.871Z</time></trkpt><trkpt lat="39.78744687228621" lon="9.52217795330068"><ele>440.0</ele><time>2026-04-28T14:30:25.871Z</time></trkpt><trkpt lat="39.78742859558166" lon="9.522270717592319"><ele>439.16666666666663</ele><time>2026-04-28T14:30:26.871Z</time></trkpt><trkpt lat="39.78740971447817" lon="9.522366706514866"><ele>438.3333333333333</ele><time>2026-04-28T14:30:27.871Z</time></trkpt><trkpt lat="39.78739256657246" lon="9.5224651263753"><ele>437.5</ele><time>2026-04-28T14:30:28.871Z</time></trkpt><trkpt lat="39.78739005347575" lon="9.522576421486498"><ele>436.66666666666663</ele><time>2026-04-28T14:30:29.871Z</time></trkpt><trkpt lat="39.78738910861317" lon="9.522702237122322"><ele>435.8333333333333</ele><time>2026-04-28T14:30:30.871Z</time></trkpt><trkpt lat="39.78739607066187" lon="9.522840791958165"><ele>435.0</ele><time>2026-04-28T14:30:31.871Z</time></trkpt><trkpt lat="39.78740794789989" lon="9.522980117757427"><ele>434.75</ele><time>2026-04-28T14:30:32.871Z</time></trkpt><trkpt lat="39.78743073319163" lon="9.523116333372686"><ele>434.5</ele><time>2026-04-28T14:30:33.871Z</time></trkpt><trkpt lat="39.787459801245426" lon="9.523258647691282"><ele>434.25</ele><time>2026-04-28T14:30:34.871Z</time></trkpt><trkpt lat="39.78749134630517" lon="9.523402193171233"><ele>434.0</ele><time>2026-04-28T14:30:35.871Z</time></trkpt><trkpt lat="39.78753048942396" lon="9.523549831995528"><ele>434.0</ele><time>2026-04-28T14:30:36.871Z</time></trkpt><trkpt lat="39.78756510222116" lon="9.523703178596888"><ele>434.0</ele><time>2026-04-28T14:30:37.871Z</time></trkpt><trkpt lat="39.78759613230442" lon="9.523866693889081"><ele>434.0</ele><time>2026-04-28T14:30:38.871Z</time></trkpt><trkpt lat="39.787627993365874" lon="9.524038880618889"><ele>434.0</ele><time>2026-04-28T14:30:39.871Z</time></trkpt><trkpt lat="39.78765904636624" lon="9.524200191775208"><ele>430.5</ele><time>2026-04-28T14:30:40.871Z</time></trkpt><trkpt lat="39.787700965884056" lon="9.524360417411557"><ele>427.0</ele><time>2026-04-28T14:30:41.871Z</time></trkpt><trkpt lat="39.78776288417378" lon="9.524520607270542"><ele>423.5</ele><time>2026-04-28T14:30:42.871Z</time></trkpt><trkpt lat="39.78783443688972" lon="9.524679217888036"><ele>420.0</ele><time>2026-04-28T14:30:43.871Z</time></trkpt><trkpt lat="39.787916610485496" lon="9.524832449519193"><ele>420.0</ele><time>2026-04-28T14:30:44.871Z</time></trkpt><trkpt lat="39.7880115880375" lon="9.524979961981346"><ele>420.0</ele><time>2026-04-28T14:30:45.871Z</time></trkpt><trkpt lat="39.7881101669392" lon="9.525132168696603"><ele>420.0</ele><time>2026-04-28T14:30:46.871Z</time></trkpt><trkpt lat="39.7881988876398" lon="9.525287292568605"><ele>420.0</ele><time>2026-04-28T14:30:47.871Z</time></trkpt><trkpt lat="39.78827526891612" lon="9.525448599583022"><ele>423.5</ele><time>2026-04-28T14:30:48.871Z</time></trkpt><trkpt lat="39.788344714587566" lon="9.52562395074698"><ele>427.0</ele><time>2026-04-28T14:30:49.871Z</time></trkpt><trkpt lat="39.788408336848875" lon="9.525803980803875"><ele>430.5</ele><time>2026-04-28T14:30:50.871Z</time></trkpt><trkpt lat="39.78847312833508" lon="9.52597190733374"><ele>434.0</ele><time>2026-04-28T14:30:51.871Z</time></trkpt><trkpt lat="39.78854057475705" lon="9.526131291609863"><ele>429.25</ele><time>2026-04-28T14:30:52.871Z</time></trkpt><trkpt lat="39.78861458461745" lon="9.526287994258537"><ele>424.5</ele><time>2026-04-28T14:30:53.871Z</time></trkpt><trkpt lat="39.78868635468271" lon="9.52644008469749"><ele>419.75</ele><time>2026-04-28T14:30:54.871Z</time></trkpt><trkpt lat="39.7887499126277" lon="9.5265895515404"><ele>415.0</ele><time>2026-04-28T14:30:55.871Z</time></trkpt><trkpt lat="39.788806517957546" lon="9.526724604684883"><ele>415.0</ele><time>2026-04-28T14:30:56.871Z</time></trkpt><trkpt lat="39.788849235082964" lon="9.526845922922366"><ele>415.0</ele><time>2026-04-28T14:30:57.871Z</time></trkpt><trkpt lat="39.7888691664489" lon="9.5269710453447"><ele>415.0</ele><time>2026-04-28T14:30:58.871Z</time></trkpt><trkpt lat="39.78886894962314" lon="9.527112921214531"><ele>415.0</ele><time>2026-04-28T14:30:59.871Z</time></trkpt><trkpt lat="39.78884507632737" lon="9.52726009900082"><ele>415.0</ele><time>2026-04-28T14:31:00.871Z</time></trkpt><trkpt lat="39.7887902767509" lon="9.527395804191045"><ele>416.25</ele><time>2026-04-28T14:31:01.871Z</time></trkpt><trkpt lat="39.78873132167973" lon="9.527521945754877"><ele>417.5</ele><time>2026-04-28T14:31:02.871Z</time></trkpt><trkpt lat="39.78866180729606" lon="9.527642986950077"><ele>418.75</ele><time>2026-04-28T14:31:03.871Z</time></trkpt><trkpt lat="39.78857702927662" lon="9.52775075400128"><ele>420.0</ele><time>2026-04-28T14:31:04.871Z</time></trkpt><trkpt lat="39.78847963003059" lon="9.527832383158229"><ele>421.25</ele><time>2026-04-28T14:31:05.871Z</time></trkpt><trkpt lat="39.78836390210704" lon="9.527887596821463"><ele>422.5</ele><time>2026-04-28T14:31:06.87Z</time></trkpt><trkpt lat="39.78824145832678" lon="9.527927255219208"><ele>423.75</ele><time>2026-04-28T14:31:07.87Z</time></trkpt><trkpt lat="39.7881130421073" lon="9.52796204985497"><ele>425.0</ele><time>2026-04-28T14:31:08.87Z</time></trkpt><trkpt lat="39.787979263622134" lon="9.527987865048658"><ele>419.75</ele><time>2026-04-28T14:31:09.87Z</time></trkpt><trkpt lat="39.78784597938159" lon="9.528005968274325"><ele>414.5</ele><time>2026-04-28T14:31:10.87Z</time></trkpt><trkpt lat="39.78771235496371" lon="9.52801432996361"><ele>409.25</ele><time>2026-04-28T14:31:11.87Z</time></trkpt><trkpt lat="39.78757189612171" lon="9.528000722471516"><ele>404.0</ele><time>2026-04-28T14:31:12.87Z</time></trkpt><trkpt lat="39.78743102117381" lon="9.527941097087352"><ele>402.0</ele><time>2026-04-28T14:31:13.871Z</time></trkpt><trkpt lat="39.78728296562508" lon="9.52790057847206"><ele>400.0</ele><time>2026-04-28T14:31:14.871Z</time></trkpt><trkpt lat="39.78714212751675" lon="9.527826057402216"><ele>398.0</ele><time>2026-04-28T14:31:15.871Z</time></trkpt><trkpt lat="39.78700568029602" lon="9.52774448415197"><ele>402.5</ele><time>2026-04-28T14:31:16.87Z</time></trkpt><trkpt lat="39.78687020978356" lon="9.52767266798578"><ele>407.0</ele><time>2026-04-28T14:31:17.87Z</time></trkpt><trkpt lat="39.78673480217661" lon="9.52760842399855"><ele>411.5</ele><time>2026-04-28T14:31:18.87Z</time></trkpt><trkpt lat="39.78660562121277" lon="9.527555559691763"><ele>416.0</ele><time>2026-04-28T14:31:19.87Z</time></trkpt><trkpt lat="39.7864661554888" lon="9.527512354724948"><ele>416.0</ele><time>2026-04-28T14:31:20.87Z</time></trkpt><trkpt lat="39.786314983729135" lon="9.527502258878053"><ele>416.0</ele><time>2026-04-28T14:31:21.87Z</time></trkpt><trkpt lat="39.7861719552914" lon="9.527506242087146"><ele>416.0</ele><time>2026-04-28T14:31:22.87Z</time></trkpt><trkpt lat="39.78603078036036" lon="9.52752655494849"><ele>416.0</ele><time>2026-04-28T14:31:23.87Z</time></trkpt><trkpt lat="39.78589345089396" lon="9.527568231239309"><ele>415.75</ele><time>2026-04-28T14:31:24.87Z</time></trkpt><trkpt lat="39.785761339577654" lon="9.527630612861898"><ele>415.5</ele><time>2026-04-28T14:31:25.87Z</time></trkpt><trkpt lat="39.78563461914018" lon="9.527705917794671"><ele>415.25</ele><time>2026-04-28T14:31:26.87Z</time></trkpt><trkpt lat="39.78550891638596" lon="9.52779719722997"><ele>415.0</ele><time>2026-04-28T14:31:27.87Z</time></trkpt><trkpt lat="39.785387685873445" lon="9.527904185029588"><ele>415.6666666666667</ele><time>2026-04-28T14:31:28.87Z</time></trkpt><trkpt lat="39.785273941343675" lon="9.528028599425596"><ele>416.33333333333337</ele><time>2026-04-28T14:31:29.87Z</time></trkpt><trkpt lat="39.78517035544225" lon="9.528172734363825"><ele>417.0</ele><time>2026-04-28T14:31:30.87Z</time></trkpt><trkpt lat="39.78506978540808" lon="9.528329267717258"><ele>417.0</ele><time>2026-04-28T14:31:31.87Z</time></trkpt><trkpt lat="39.78496939793617" lon="9.52849404256928"><ele>417.0</ele><time>2026-04-28T14:31:32.87Z</time></trkpt><trkpt lat="39.784867344491595" lon="9.52865270315603"><ele>417.0</ele><time>2026-04-28T14:31:33.87Z</time></trkpt><trkpt lat="39.78477361423234" lon="9.52881227300839"><ele>409.25</ele><time>2026-04-28T14:31:34.87Z</time></trkpt><trkpt lat="39.784685755560034" lon="9.528966720754688"><ele>401.5</ele><time>2026-04-28T14:31:35.87Z</time></trkpt><trkpt lat="39.78461023467302" lon="9.52912101219967"><ele>393.75</ele><time>2026-04-28T14:31:36.87Z</time></trkpt><trkpt lat="39.78455632461305" lon="9.529279375028892"><ele>386.0</ele><time>2026-04-28T14:31:37.871Z</time></trkpt><trkpt lat="39.78452943466263" lon="9.529449881728782"><ele>383.0</ele><time>2026-04-28T14:31:38.871Z</time></trkpt><trkpt lat="39.78452572505244" lon="9.529627698746804"><ele>380.0</ele><time>2026-04-28T14:31:39.871Z</time></trkpt><trkpt lat="39.78453606296722" lon="9.529812279913902"><ele>377.0</ele><time>2026-04-28T14:31:40.871Z</time></trkpt><trkpt lat="39.78456122973641" lon="9.529996515565"><ele>374.0</ele><time>2026-04-28T14:31:41.871Z</time></trkpt><trkpt lat="39.784602535879046" lon="9.530181279213087"><ele>374.0</ele><time>2026-04-28T14:31:42.871Z</time></trkpt><trkpt lat="39.7846556123968" lon="9.53036247519482"><ele>374.0</ele><time>2026-04-28T14:31:43.871Z</time></trkpt><trkpt lat="39.78471771286692" lon="9.530535576949362"><ele>374.0</ele><time>2026-04-28T14:31:44.871Z</time></trkpt><trkpt lat="39.7847758609272" lon="9.530708249976358"><ele>374.0</ele><time>2026-04-28T14:31:45.871Z</time></trkpt><trkpt lat="39.78482093034578" lon="9.530890085810212"><ele>374.75</ele><time>2026-04-28T14:31:46.871Z</time></trkpt><trkpt lat="39.78484555824161" lon="9.531073192753125"><ele>375.5</ele><time>2026-04-28T14:31:47.871Z</time></trkpt><trkpt lat="39.78485427388216" lon="9.531260720792018"><ele>376.25</ele><time>2026-04-28T14:31:48.871Z</time></trkpt><trkpt lat="39.784842445651094" lon="9.5314483902927"><ele>377.0</ele><time>2026-04-28T14:31:49.871Z</time></trkpt><trkpt lat="39.784806546986694" lon="9.531642011029103"><ele>377.6666666666667</ele><time>2026-04-28T14:31:50.871Z</time></trkpt><trkpt lat="39.78475245740026" lon="9.53184423305672"><ele>378.3333333333333</ele><time>2026-04-28T14:31:51.871Z</time></trkpt><trkpt lat="39.7846980437548" lon="9.53205634005269"><ele>379.0</ele><time>2026-04-28T14:31:52.871Z</time></trkpt><trkpt lat="39.78464511088717" lon="9.532271753516847"><ele>375.0</ele><time>2026-04-28T14:31:53.871Z</time></trkpt><trkpt lat="39.78459432823601" lon="9.532485854295768"><ele>371.0</ele><time>2026-04-28T14:31:54.871Z</time></trkpt><trkpt lat="39.78454538654951" lon="9.53270490181507"><ele>367.0</ele><time>2026-04-28T14:31:55.871Z</time></trkpt><trkpt lat="39.7844955534671" lon="9.53292565613405"><ele>363.0</ele><time>2026-04-28T14:31:56.871Z</time></trkpt><trkpt lat="39.784447677503245" lon="9.533137503825516"><ele>359.0</ele><time>2026-04-28T14:31:57.871Z</time></trkpt><trkpt lat="39.78439903897166" lon="9.533334321749512"><ele>355.0</ele><time>2026-04-28T14:31:58.871Z</time></trkpt><trkpt lat="39.78435502696304" lon="9.533528583022779"><ele>360.0</ele><time>2026-04-28T14:31:59.871Z</time></trkpt><trkpt lat="39.784310402728515" lon="9.533711267012626"><ele>365.0</ele><time>2026-04-28T14:32:00.871Z</time></trkpt><trkpt lat="39.78426206013507" lon="9.533884029849983"><ele>370.0</ele><time>2026-04-28T14:32:01.871Z</time></trkpt><trkpt lat="39.78419709499984" lon="9.534048650593636"><ele>375.0</ele><time>2026-04-28T14:32:02.871Z</time></trkpt><trkpt lat="39.78411312470158" lon="9.534198948787946"><ele>375.0</ele><time>2026-04-28T14:32:03.871Z</time></trkpt><trkpt lat="39.7840095938388" lon="9.53433773559954"><ele>375.0</ele><time>2026-04-28T14:32:04.871Z</time></trkpt><trkpt lat="39.783909876164365" lon="9.534458144250543"><ele>375.0</ele><time>2026-04-28T14:32:05.871Z</time></trkpt><trkpt lat="39.7838211400761" lon="9.534562960163985"><ele>375.0</ele><time>2026-04-28T14:32:06.871Z</time></trkpt><trkpt lat="39.78374552862537" lon="9.534677652571611"><ele>371.25</ele><time>2026-04-28T14:32:07.871Z</time></trkpt><trkpt lat="39.78369779308663" lon="9.534796046453204"><ele>367.5</ele><time>2026-04-28T14:32:08.871Z</time></trkpt><trkpt lat="39.783681408393186" lon="9.534938593968757"><ele>363.75</ele><time>2026-04-28T14:32:09.871Z</time></trkpt><trkpt lat="39.78369630223688" lon="9.535091635629074"><ele>360.0</ele><time>2026-04-28T14:32:10.871Z</time></trkpt><trkpt lat="39.78373069855218" lon="9.53525148084637"><ele>359.75</ele><time>2026-04-28T14:32:11.871Z</time></trkpt><trkpt lat="39.78377459639293" lon="9.53541047352796"><ele>359.5</ele><time>2026-04-28T14:32:12.871Z</time></trkpt><trkpt lat="39.78383329107645" lon="9.535582922728437"><ele>359.25</ele><time>2026-04-28T14:32:13.871Z</time></trkpt><trkpt lat="39.783892591196086" lon="9.535765226178889"><ele>359.0</ele><time>2026-04-28T14:32:14.871Z</time></trkpt><trkpt lat="39.78394460457964" lon="9.535954784919506"><ele>359.0</ele><time>2026-04-28T14:32:15.871Z</time></trkpt><trkpt lat="39.78400111048121" lon="9.536147385612624"><ele>359.0</ele><time>2026-04-28T14:32:16.871Z</time></trkpt><trkpt lat="39.78406817342306" lon="9.536338593854964"><ele>359.0</ele><time>2026-04-28T14:32:17.871Z</time></trkpt><trkpt lat="39.784142800084005" lon="9.536518916092595"><ele>361.5</ele><time>2026-04-28T14:32:18.871Z</time></trkpt><trkpt lat="39.7842231416993" lon="9.536687490297505"><ele>364.0</ele><time>2026-04-28T14:32:19.871Z</time></trkpt><trkpt lat="39.78430272543866" lon="9.536843467155357"><ele>366.5</ele><time>2026-04-28T14:32:20.871Z</time></trkpt><trkpt lat="39.78436112808" lon="9.53697672957178"><ele>369.0</ele><time>2026-04-28T14:32:21.871Z</time></trkpt><trkpt lat="39.78439949713276" lon="9.537105624462612"><ele>359.0</ele><time>2026-04-28T14:32:22.871Z</time></trkpt><trkpt lat="39.78441170949393" lon="9.537245492576464"><ele>349.0</ele><time>2026-04-28T14:32:23.871Z</time></trkpt><trkpt lat="39.784398701112394" lon="9.537400977671336"><ele>339.0</ele><time>2026-04-28T14:32:24.871Z</time></trkpt><trkpt lat="39.78437669412744" lon="9.537568352139356"><ele>329.0</ele><time>2026-04-28T14:32:25.871Z</time></trkpt><trkpt lat="39.7843685276255" lon="9.537750727559766"><ele>329.6666666666667</ele><time>2026-04-28T14:32:26.871Z</time></trkpt><trkpt lat="39.784374479295764" lon="9.537941143518026"><ele>330.3333333333333</ele><time>2026-04-28T14:32:27.871Z</time></trkpt><trkpt lat="39.78439777366358" lon="9.538136777317854"><ele>331.0</ele><time>2026-04-28T14:32:28.871Z</time></trkpt><trkpt lat="39.78442366269964" lon="9.53833032111885"><ele>331.0</ele><time>2026-04-28T14:32:29.871Z</time></trkpt><trkpt lat="39.78445839919541" lon="9.538525678920955"><ele>331.0</ele><time>2026-04-28T14:32:30.871Z</time></trkpt><trkpt lat="39.78451588270008" lon="9.538715721611347"><ele>331.0</ele><time>2026-04-28T14:32:31.871Z</time></trkpt><trkpt lat="39.78458192840754" lon="9.53890106522914"><ele>335.3333333333333</ele><time>2026-04-28T14:32:32.871Z</time></trkpt><trkpt lat="39.784665431353424" lon="9.539075836162793"><ele>339.6666666666667</ele><time>2026-04-28T14:32:33.871Z</time></trkpt><trkpt lat="39.784764374873525" lon="9.53925361552335"><ele>344.0</ele><time>2026-04-28T14:32:34.871Z</time></trkpt><trkpt lat="39.784864109528414" lon="9.539431125356401"><ele>347.6666666666667</ele><time>2026-04-28T14:32:35.871Z</time></trkpt><trkpt lat="39.784972847176554" lon="9.539609821805774"><ele>351.3333333333333</ele><time>2026-04-28T14:32:36.871Z</time></trkpt><trkpt lat="39.78508178627778" lon="9.539790052825797"><ele>355.0</ele><time>2026-04-28T14:32:37.871Z</time></trkpt><trkpt lat="39.78519074695135" lon="9.539965643356746"><ele>353.0</ele><time>2026-04-28T14:32:38.871Z</time></trkpt><trkpt lat="39.7852936008292" lon="9.540130817066318"><ele>351.0</ele><time>2026-04-28T14:32:39.871Z</time></trkpt><trkpt lat="39.78540480414946" lon="9.54027288865984"><ele>349.0</ele><time>2026-04-28T14:32:40.871Z</time></trkpt><trkpt lat="39.78552078050151" lon="9.540396959502186"><ele>349.0</ele><time>2026-04-28T14:32:41.871Z</time></trkpt><trkpt lat="39.78564861498772" lon="9.540488183343767"><ele>349.0</ele><time>2026-04-28T14:32:42.871Z</time></trkpt><trkpt lat="39.78578014856781" lon="9.540552366201949"><ele>349.0</ele><time>2026-04-28T14:32:43.871Z</time></trkpt><trkpt lat="39.78591286243503" lon="9.540600604015488"><ele>349.0</ele><time>2026-04-28T14:32:44.871Z</time></trkpt><trkpt lat="39.786027873156954" lon="9.540654243327563"><ele>343.25</ele><time>2026-04-28T14:32:45.871Z</time></trkpt><trkpt lat="39.7861215334934" lon="9.540736805612108"><ele>337.5</ele><time>2026-04-28T14:32:46.871Z</time></trkpt><trkpt lat="39.78620228642884" lon="9.540841444700174"><ele>331.75</ele><time>2026-04-28T14:32:47.871Z</time></trkpt><trkpt lat="39.78626406969862" lon="9.540973548791673"><ele>326.0</ele><time>2026-04-28T14:32:48.871Z</time></trkpt><trkpt lat="39.78631687963838" lon="9.541123707327126"><ele>326.5</ele><time>2026-04-28T14:32:49.871Z</time></trkpt><trkpt lat="39.78634851863008" lon="9.541280046395988"><ele>327.0</ele><time>2026-04-28T14:32:50.871Z</time></trkpt><trkpt lat="39.78635230480437" lon="9.541430448061467"><ele>327.5</ele><time>2026-04-28T14:32:51.871Z</time></trkpt><trkpt lat="39.786333566195005" lon="9.54157148740718"><ele>328.0</ele><time>2026-04-28T14:32:52.871Z</time></trkpt><trkpt lat="39.78628588387297" lon="9.541710252234964"><ele>328.0</ele><time>2026-04-28T14:32:53.871Z</time></trkpt><trkpt lat="39.786217383470756" lon="9.541834198473143"><ele>328.0</ele><time>2026-04-28T14:32:54.871Z</time></trkpt><trkpt lat="39.78613641256104" lon="9.54195540491874"><ele>328.0</ele><time>2026-04-28T14:32:55.871Z</time></trkpt><trkpt lat="39.786042101609574" lon="9.542078194336405"><ele>328.0</ele><time>2026-04-28T14:32:56.871Z</time></trkpt><trkpt lat="39.785960702738016" lon="9.542200397320107"><ele>330.0</ele><time>2026-04-28T14:32:57.871Z</time></trkpt><trkpt lat="39.78589685128007" lon="9.542335913115078"><ele>332.0</ele><time>2026-04-28T14:32:58.871Z</time></trkpt><trkpt lat="39.785855762552174" lon="9.542484697199026"><ele>334.0</ele><time>2026-04-28T14:32:59.871Z</time></trkpt><trkpt lat="39.785829004173614" lon="9.542641005996531"><ele>336.0</ele><time>2026-04-28T14:33:00.871Z</time></trkpt><trkpt lat="39.785815234805526" lon="9.542807210137761"><ele>332.0</ele><time>2026-04-28T14:33:01.871Z</time></trkpt><trkpt lat="39.78580974396675" lon="9.542971303246118"><ele>328.0</ele><time>2026-04-28T14:33:02.871Z</time></trkpt><trkpt lat="39.785802416742214" lon="9.543128265011278"><ele>324.0</ele><time>2026-04-28T14:33:03.871Z</time></trkpt><trkpt lat="39.78576642606034" lon="9.543278093487245"><ele>320.0</ele><time>2026-04-28T14:33:04.871Z</time></trkpt><trkpt lat="39.78570973636061" lon="9.54341271241108"><ele>320.0</ele><time>2026-04-28T14:33:05.871Z</time></trkpt><trkpt lat="39.78563378428211" lon="9.54353430065417"><ele>320.0</ele><time>2026-04-28T14:33:06.871Z</time></trkpt><trkpt lat="39.78553579671001" lon="9.543637353889176"><ele>320.0</ele><time>2026-04-28T14:33:07.871Z</time></trkpt><trkpt lat="39.78542460642994" lon="9.543722123696597"><ele>320.0</ele><time>2026-04-28T14:33:08.872Z</time></trkpt><trkpt lat="39.785300335036574" lon="9.543764630225917"><ele>318.5</ele><time>2026-04-28T14:33:09.872Z</time></trkpt><trkpt lat="39.78517008413452" lon="9.543810024174176"><ele>317.0</ele><time>2026-04-28T14:33:10.872Z</time></trkpt><trkpt lat="39.785048239673564" lon="9.543895362031448"><ele>315.5</ele><time>2026-04-28T14:33:11.872Z</time></trkpt><trkpt lat="39.78492974010886" lon="9.544025219028814"><ele>314.0</ele><time>2026-04-28T14:33:12.872Z</time></trkpt><trkpt lat="39.78483203601959" lon="9.5441790584576"><ele>314.0</ele><time>2026-04-28T14:33:13.872Z</time></trkpt><trkpt lat="39.78472634961088" lon="9.54430985783157"><ele>314.0</ele><time>2026-04-28T14:33:14.872Z</time></trkpt><trkpt lat="39.78463172574999" lon="9.544436159482464"><ele>314.0</ele><time>2026-04-28T14:33:15.871Z</time></trkpt><trkpt lat="39.784535702597246" lon="9.544556104857264"><ele>314.0</ele><time>2026-04-28T14:33:16.872Z</time></trkpt><trkpt lat="39.78444606039131" lon="9.544682674203258"><ele>316.25</ele><time>2026-04-28T14:33:17.872Z</time></trkpt><trkpt lat="39.78437280896377" lon="9.544807717139738"><ele>318.5</ele><time>2026-04-28T14:33:18.871Z</time></trkpt><trkpt lat="39.78432432241252" lon="9.544956744292406"><ele>320.75</ele><time>2026-04-28T14:33:19.871Z</time></trkpt><trkpt lat="39.78429805199768" lon="9.545106627738063"><ele>323.0</ele><time>2026-04-28T14:33:20.871Z</time></trkpt><trkpt lat="39.7842783687119" lon="9.545261260378247"><ele>317.75</ele><time>2026-04-28T14:33:21.871Z</time></trkpt><trkpt lat="39.78425182472891" lon="9.545406863461508"><ele>312.5</ele><time>2026-04-28T14:33:22.871Z</time></trkpt><trkpt lat="39.784202602507094" lon="9.545542731272418"><ele>307.25</ele><time>2026-04-28T14:33:23.871Z</time></trkpt><trkpt lat="39.784139138910604" lon="9.545671491857657"><ele>302.0</ele><time>2026-04-28T14:33:24.871Z</time></trkpt><trkpt lat="39.78405090101106" lon="9.545777233998908"><ele>302.0</ele><time>2026-04-28T14:33:25.871Z</time></trkpt><trkpt lat="39.78395126294777" lon="9.545866000859407"><ele>302.0</ele><time>2026-04-28T14:33:26.871Z</time></trkpt><trkpt lat="39.78383307256418" lon="9.545934175299294"><ele>302.0</ele><time>2026-04-28T14:33:27.871Z</time></trkpt><trkpt lat="39.7837085044307" lon="9.545990722119619"><ele>302.0</ele><time>2026-04-28T14:33:28.871Z</time></trkpt><trkpt lat="39.783577153051745" lon="9.546037629183989"><ele>299.25</ele><time>2026-04-28T14:33:29.871Z</time></trkpt><trkpt lat="39.78345021568226" lon="9.546092968334504"><ele>296.5</ele><time>2026-04-28T14:33:30.871Z</time></trkpt><trkpt lat="39.783325699119075" lon="9.546157118059176"><ele>293.75</ele><time>2026-04-28T14:33:31.871Z</time></trkpt><trkpt lat="39.78322400374097" lon="9.546278429787204"><ele>291.0</ele><time>2026-04-28T14:33:32.871Z</time></trkpt><trkpt lat="39.783150233098596" lon="9.546432867438948"><ele>291.0</ele><time>2026-04-28T14:33:33.871Z</time></trkpt><trkpt lat="39.78307112688167" lon="9.546591073638446"><ele>291.0</ele><time>2026-04-28T14:33:34.871Z</time></trkpt><trkpt lat="39.783006540981766" lon="9.546762979457434"><ele>291.0</ele><time>2026-04-28T14:33:35.871Z</time></trkpt><trkpt lat="39.7829451025828" lon="9.546938087565692"><ele>291.0</ele><time>2026-04-28T14:33:36.871Z</time></trkpt><trkpt lat="39.782882373702954" lon="9.547131272430802"><ele>294.0</ele><time>2026-04-28T14:33:37.871Z</time></trkpt><trkpt lat="39.78281208959834" lon="9.547326007057903"><ele>297.0</ele><time>2026-04-28T14:33:38.871Z</time></trkpt><trkpt lat="39.78273661191568" lon="9.547514371478393"><ele>300.0</ele><time>2026-04-28T14:33:39.871Z</time></trkpt><trkpt lat="39.78266239538703" lon="9.547707532432355"><ele>296.0</ele><time>2026-04-28T14:33:40.871Z</time></trkpt><trkpt lat="39.78259504326221" lon="9.54789508222213"><ele>292.0</ele><time>2026-04-28T14:33:41.871Z</time></trkpt><trkpt lat="39.782528793376805" lon="9.548076688698487"><ele>288.0</ele><time>2026-04-28T14:33:42.871Z</time></trkpt><trkpt lat="39.78245885233184" lon="9.5482515530107"><ele>288.0</ele><time>2026-04-28T14:33:43.871Z</time></trkpt><trkpt lat="39.7823953923518" lon="9.548414201611164"><ele>288.0</ele><time>2026-04-28T14:33:44.871Z</time></trkpt><trkpt lat="39.78233466438531" lon="9.5485798339962"><ele>288.0</ele><time>2026-04-28T14:33:45.871Z</time></trkpt><trkpt lat="39.782268587302504" lon="9.548729406094646"><ele>288.0</ele><time>2026-04-28T14:33:46.871Z</time></trkpt><trkpt lat="39.78221994498946" lon="9.54887929256551"><ele>284.25</ele><time>2026-04-28T14:33:47.871Z</time></trkpt><trkpt lat="39.782183759678894" lon="9.549038603410885"><ele>280.5</ele><time>2026-04-28T14:33:48.871Z</time></trkpt><trkpt lat="39.782177442179155" lon="9.549214151638163"><ele>276.75</ele><time>2026-04-28T14:33:49.871Z</time></trkpt><trkpt lat="39.78217319414667" lon="9.549389155506947"><ele>273.0</ele><time>2026-04-28T14:33:50.871Z</time></trkpt><trkpt lat="39.78217849780228" lon="9.549575170582191"><ele>272.6666666666667</ele><time>2026-04-28T14:33:51.871Z</time></trkpt><trkpt lat="39.782194148187514" lon="9.549767062785014"><ele>272.33333333333337</ele><time>2026-04-28T14:33:52.871Z</time></trkpt><trkpt lat="39.78220516568487" lon="9.54996258608539"><ele>272.0</ele><time>2026-04-28T14:33:53.871Z</time></trkpt><trkpt lat="39.782223265968184" lon="9.550167880750863"><ele>271.33333333333337</ele><time>2026-04-28T14:33:54.871Z</time></trkpt><trkpt lat="39.78223712579629" lon="9.550375490851446"><ele>270.6666666666667</ele><time>2026-04-28T14:33:55.871Z</time></trkpt><trkpt lat="39.78225151951117" lon="9.550596594514706"><ele>270.0</ele><time>2026-04-28T14:33:56.871Z</time></trkpt><trkpt lat="39.782271012925705" lon="9.550825081919806"><ele>270.0</ele><time>2026-04-28T14:33:57.871Z</time></trkpt><trkpt lat="39.78228462880707" lon="9.551056669329219"><ele>270.0</ele><time>2026-04-28T14:33:58.871Z</time></trkpt><trkpt lat="39.78229776685722" lon="9.551279733219122"><ele>270.0</ele><time>2026-04-28T14:33:59.871Z</time></trkpt><trkpt lat="39.782313983564805" lon="9.55150002087766"><ele>270.25</ele><time>2026-04-28T14:34:00.871Z</time></trkpt><trkpt lat="39.78231944759085" lon="9.551696844035057"><ele>270.5</ele><time>2026-04-28T14:34:01.871Z</time></trkpt><trkpt lat="39.78234630588149" lon="9.55188994237973"><ele>270.75</ele><time>2026-04-28T14:34:02.871Z</time></trkpt><trkpt lat="39.78236763319706" lon="9.552073181575423"><ele>271.0</ele><time>2026-04-28T14:34:03.871Z</time></trkpt><trkpt lat="39.78239779129829" lon="9.552247093556625"><ele>271.2</ele><time>2026-04-28T14:34:04.871Z</time></trkpt><trkpt lat="39.782436033551235" lon="9.552406227666514"><ele>271.40000000000003</ele><time>2026-04-28T14:34:05.871Z</time></trkpt><trkpt lat="39.78246913556203" lon="9.552554380166873"><ele>271.6</ele><time>2026-04-28T14:34:06.871Z</time></trkpt><trkpt lat="39.782506451501774" lon="9.55268764609156"><ele>271.8</ele><time>2026-04-28T14:34:07.871Z</time></trkpt><trkpt lat="39.78252768710073" lon="9.552803507836181"><ele>272.0</ele><time>2026-04-28T14:34:08.871Z</time></trkpt><trkpt lat="39.78253073894822" lon="9.55289371026616"><ele>273.6666666666667</ele><time>2026-04-28T14:34:09.871Z</time></trkpt><trkpt lat="39.78255883133927" lon="9.552984008973976"><ele>275.33333333333337</ele><time>2026-04-28T14:34:11.871Z</time></trkpt><trkpt lat="39.782463141918875" lon="9.553077596670247"><ele>277.0</ele><time>2026-04-28T14:34:12.871Z</time></trkpt><trkpt lat="39.78241631391158" lon="9.553140948780776"><ele>278.6666666666667</ele><time>2026-04-28T14:34:13.871Z</time></trkpt><trkpt lat="39.7823607547855" lon="9.553220579426844"><ele>280.3333333333333</ele><time>2026-04-28T14:34:14.871Z</time></trkpt><trkpt lat="39.78228991183955" lon="9.553315224064155"><ele>282.0</ele><time>2026-04-28T14:34:15.871Z</time></trkpt><trkpt lat="39.78220963632435" lon="9.55341596512667"><ele>282.0</ele><time>2026-04-28T14:34:16.871Z</time></trkpt><trkpt lat="39.782110832894055" lon="9.553520529665464"><ele>282.0</ele><time>2026-04-28T14:34:17.871Z</time></trkpt><trkpt lat="39.7819961331529" lon="9.553627868909075"><ele>282.0</ele><time>2026-04-28T14:34:18.871Z</time></trkpt><trkpt lat="39.78186765186282" lon="9.553738481097625"><ele>282.0</ele><time>2026-04-28T14:34:19.871Z</time></trkpt><trkpt lat="39.781713830333786" lon="9.553862786462329"><ele>279.0</ele><time>2026-04-28T14:34:20.871Z</time></trkpt><trkpt lat="39.781545713880334" lon="9.5540152691633"><ele>276.0</ele><time>2026-04-28T14:34:21.871Z</time></trkpt><trkpt lat="39.78137143440706" lon="9.554162272137514"><ele>273.0</ele><time>2026-04-28T14:34:22.871Z</time></trkpt><trkpt lat="39.781184789713414" lon="9.554318897069399"><ele>271.0</ele><time>2026-04-28T14:34:23.871Z</time></trkpt><trkpt lat="39.780983292060874" lon="9.554486092873013"><ele>269.0</ele><time>2026-04-28T14:34:24.871Z</time></trkpt><trkpt lat="39.78077739188655" lon="9.554646542927589"><ele>269.0</ele><time>2026-04-28T14:34:25.871Z</time></trkpt><trkpt lat="39.780569123963176" lon="9.5548179246999"><ele>269.0</ele><time>2026-04-28T14:34:26.871Z</time></trkpt><trkpt lat="39.780358028742306" lon="9.554963825008018"><ele>259.5</ele><time>2026-04-28T14:34:27.871Z</time></trkpt><trkpt lat="39.78015027166748" lon="9.555141756999802"><ele>250.0</ele><time>2026-04-28T14:34:28.872Z</time></trkpt><trkpt lat="39.779974887224576" lon="9.55534536490772"><ele>255.33333333333331</ele><time>2026-04-28T14:34:29.872Z</time></trkpt><trkpt lat="39.779797834331454" lon="9.555513650322133"><ele>260.6666666666667</ele><time>2026-04-28T14:34:30.872Z</time></trkpt><trkpt lat="39.77961757312302" lon="9.555651478963387"><ele>266.0</ele><time>2026-04-28T14:34:31.872Z</time></trkpt><trkpt lat="39.779451721231474" lon="9.555811499072915"><ele>263.6666666666667</ele><time>2026-04-28T14:34:32.872Z</time></trkpt><trkpt lat="39.77931069105394" lon="9.55598726855427"><ele>261.3333333333333</ele><time>2026-04-28T14:34:33.872Z</time></trkpt><trkpt lat="39.77918987915413" lon="9.55615276103436"><ele>259.0</ele><time>2026-04-28T14:34:34.872Z</time></trkpt><trkpt lat="39.77905666000286" lon="9.556282482561473"><ele>259.0</ele><time>2026-04-28T14:34:35.872Z</time></trkpt><trkpt lat="39.77890200546577" lon="9.556357377248256"><ele>259.0</ele><time>2026-04-28T14:34:36.872Z</time></trkpt><trkpt lat="39.778747167929424" lon="9.55644461159759"><ele>259.0</ele><time>2026-04-28T14:34:37.872Z</time></trkpt><trkpt lat="39.778589307834125" lon="9.556538869318112"><ele>254.0</ele><time>2026-04-28T14:34:38.872Z</time></trkpt><trkpt lat="39.77842655110224" lon="9.556594104215915"><ele>249.0</ele><time>2026-04-28T14:34:39.872Z</time></trkpt><trkpt lat="39.77826917246504" lon="9.556643119772247"><ele>244.0</ele><time>2026-04-28T14:34:40.872Z</time></trkpt><trkpt lat="39.77813016278139" lon="9.55669755699593"><ele>244.0</ele><time>2026-04-28T14:34:41.872Z</time></trkpt><trkpt lat="39.778002221126194" lon="9.556775007186166"><ele>244.0</ele><time>2026-04-28T14:34:42.872Z</time></trkpt><trkpt lat="39.777877789379396" lon="9.556888343250641"><ele>244.0</ele><time>2026-04-28T14:34:43.872Z</time></trkpt><trkpt lat="39.77775484845865" lon="9.557014091482596"><ele>244.0</ele><time>2026-04-28T14:34:44.872Z</time></trkpt><trkpt lat="39.7776274276534" lon="9.55711291590171"><ele>242.33333333333331</ele><time>2026-04-28T14:34:45.872Z</time></trkpt><trkpt lat="39.77748352073149" lon="9.557181701895285"><ele>240.66666666666669</ele><time>2026-04-28T14:34:46.872Z</time></trkpt><trkpt lat="39.77732120551867" lon="9.557205084787581"><ele>239.0</ele><time>2026-04-28T14:34:47.872Z</time></trkpt><trkpt lat="39.77716087398236" lon="9.557267826237569"><ele>239.0</ele><time>2026-04-28T14:34:48.872Z</time></trkpt><trkpt lat="39.77698214392366" lon="9.557308054394515"><ele>239.0</ele><time>2026-04-28T14:34:49.872Z</time></trkpt><trkpt lat="39.776813871795504" lon="9.557342788855287"><ele>239.0</ele><time>2026-04-28T14:34:50.872Z</time></trkpt><trkpt lat="39.77665361335538" lon="9.557392812975474"><ele>236.0</ele><time>2026-04-28T14:34:51.872Z</time></trkpt><trkpt lat="39.77651008826277" lon="9.557457460042906"><ele>233.0</ele><time>2026-04-28T14:34:52.872Z</time></trkpt><trkpt lat="39.77637135680384" lon="9.557541052841056"><ele>230.0</ele><time>2026-04-28T14:34:53.872Z</time></trkpt><trkpt lat="39.776243110978406" lon="9.557640298748913"><ele>230.0</ele><time>2026-04-28T14:34:54.872Z</time></trkpt><trkpt lat="39.77613872499503" lon="9.557763768090656"><ele>230.0</ele><time>2026-04-28T14:34:55.872Z</time></trkpt><trkpt lat="39.77604581259653" lon="9.557901048568086"><ele>230.0</ele><time>2026-04-28T14:34:56.872Z</time></trkpt><trkpt lat="39.7759630900082" lon="9.558060047820426"><ele>230.0</ele><time>2026-04-28T14:34:57.872Z</time></trkpt><trkpt lat="39.77587904806211" lon="9.558222151499805"><ele>227.75</ele><time>2026-04-28T14:34:58.872Z</time></trkpt><trkpt lat="39.775781885347996" lon="9.558373236118745"><ele>225.5</ele><time>2026-04-28T14:34:59.872Z</time></trkpt><trkpt lat="39.77567046039627" lon="9.558506323271395"><ele>223.25</ele><time>2026-04-28T14:35:00.872Z</time></trkpt><trkpt lat="39.77555710422891" lon="9.558619953214862"><ele>221.0</ele><time>2026-04-28T14:35:01.872Z</time></trkpt><trkpt lat="39.77544263638077" lon="9.558714999072693"><ele>220.0</ele><time>2026-04-28T14:35:02.872Z</time></trkpt><trkpt lat="39.775324495726096" lon="9.558780851696126"><ele>219.0</ele><time>2026-04-28T14:35:03.872Z</time></trkpt><trkpt lat="39.77518449735811" lon="9.55882693301071"><ele>218.0</ele><time>2026-04-28T14:35:04.872Z</time></trkpt><trkpt lat="39.775020254818344" lon="9.558853695226116"><ele>217.0</ele><time>2026-04-28T14:35:05.872Z</time></trkpt><trkpt lat="39.77484211719033" lon="9.558874630604967"><ele>215.33333333333331</ele><time>2026-04-28T14:35:06.872Z</time></trkpt><trkpt lat="39.77465819423971" lon="9.558893267030324"><ele>213.66666666666669</ele><time>2026-04-28T14:35:07.872Z</time></trkpt><trkpt lat="39.774463495890366" lon="9.55891126011676"><ele>212.0</ele><time>2026-04-28T14:35:08.872Z</time></trkpt><trkpt lat="39.7742521406173" lon="9.558905730242994"><ele>211.33333333333334</ele><time>2026-04-28T14:35:09.872Z</time></trkpt><trkpt lat="39.77404079869371" lon="9.558948666418177"><ele>210.66666666666669</ele><time>2026-04-28T14:35:10.872Z</time></trkpt><trkpt lat="39.77384137828087" lon="9.558947961411878"><ele>210.0</ele><time>2026-04-28T14:35:11.872Z</time></trkpt><trkpt lat="39.7736320519404" lon="9.558967993052205"><ele>209.66666666666669</ele><time>2026-04-28T14:35:12.872Z</time></trkpt><trkpt lat="39.773436342238945" lon="9.558989697323549"><ele>209.33333333333334</ele><time>2026-04-28T14:35:13.872Z</time></trkpt><trkpt lat="39.773251155937984" lon="9.559044109303803"><ele>209.0</ele><time>2026-04-28T14:35:14.872Z</time></trkpt><trkpt lat="39.77307401945015" lon="9.559098247469516"><ele>209.0</ele><time>2026-04-28T14:35:15.872Z</time></trkpt><trkpt lat="39.772899430644806" lon="9.55917751810162"><ele>209.0</ele><time>2026-04-28T14:35:16.872Z</time></trkpt><trkpt lat="39.77271021800518" lon="9.559282655239729"><ele>209.0</ele><time>2026-04-28T14:35:17.872Z</time></trkpt><trkpt lat="39.77251439086209" lon="9.559406840688087"><ele>207.5</ele><time>2026-04-28T14:35:18.871Z</time></trkpt><trkpt lat="39.772287998115154" lon="9.559540456312407"><ele>206.0</ele><time>2026-04-28T14:35:19.872Z</time></trkpt><trkpt lat="39.77206273786789" lon="9.55967841333498"><ele>206.0</ele><time>2026-04-28T14:35:20.872Z</time></trkpt><trkpt lat="39.77182355352791" lon="9.559818703351379"><ele>206.0</ele><time>2026-04-28T14:35:21.872Z</time></trkpt><trkpt lat="39.77158379286634" lon="9.559962757820545"><ele>206.0</ele><time>2026-04-28T14:35:22.872Z</time></trkpt><trkpt lat="39.77133714670069" lon="9.560111582971672"><ele>206.0</ele><time>2026-04-28T14:35:23.872Z</time></trkpt><trkpt lat="39.7710960796995" lon="9.560261170762805"><ele>203.5</ele><time>2026-04-28T14:35:24.872Z</time></trkpt><trkpt lat="39.77084293637941" lon="9.560414385226796"><ele>201.0</ele><time>2026-04-28T14:35:25.872Z</time></trkpt><trkpt lat="39.77058075234887" lon="9.560564202189067"><ele>201.0</ele><time>2026-04-28T14:35:26.872Z</time></trkpt><trkpt lat="39.770315199121065" lon="9.560716413400016"><ele>201.0</ele><time>2026-04-28T14:35:27.872Z</time></trkpt><trkpt lat="39.77003722486221" lon="9.56087902229992"><ele>201.0</ele><time>2026-04-28T14:35:28.872Z</time></trkpt><trkpt lat="39.769769132468035" lon="9.561030592684563"><ele>201.0</ele><time>2026-04-28T14:35:29.872Z</time></trkpt><trkpt lat="39.76953404068441" lon="9.561166747996436"><ele>199.0</ele><time>2026-04-28T14:35:30.872Z</time></trkpt><trkpt lat="39.76931231172779" lon="9.561295601408618"><ele>197.0</ele><time>2026-04-28T14:35:31.872Z</time></trkpt><trkpt lat="39.76909934107062" lon="9.561414282335441"><ele>197.0</ele><time>2026-04-28T14:35:32.872Z</time></trkpt><trkpt lat="39.768895325380264" lon="9.561534102289441"><ele>197.0</ele><time>2026-04-28T14:35:33.872Z</time></trkpt><trkpt lat="39.76870274752668" lon="9.561657610052777"><ele>197.0</ele><time>2026-04-28T14:35:34.872Z</time></trkpt><trkpt lat="39.76849068019259" lon="9.561788908824427"><ele>198.0</ele><time>2026-04-28T14:35:35.872Z</time></trkpt><trkpt lat="39.76827487765394" lon="9.561927848083858"><ele>199.0</ele><time>2026-04-28T14:35:36.872Z</time></trkpt><trkpt lat="39.76807070447335" lon="9.56208324171964"><ele>196.5</ele><time>2026-04-28T14:35:37.872Z</time></trkpt><trkpt lat="39.7678655778204" lon="9.56225379975981"><ele>194.0</ele><time>2026-04-28T14:35:38.872Z</time></trkpt><trkpt lat="39.76763743397726" lon="9.562413288713465"><ele>194.0</ele><time>2026-04-28T14:35:39.872Z</time></trkpt><trkpt lat="39.767414547805025" lon="9.562583655275812"><ele>194.0</ele><time>2026-04-28T14:35:40.872Z</time></trkpt><trkpt lat="39.767190662562186" lon="9.562750963619418"><ele>193.0</ele><time>2026-04-28T14:35:41.872Z</time></trkpt><trkpt lat="39.76697525843185" lon="9.562912254936801"><ele>192.0</ele><time>2026-04-28T14:35:42.872Z</time></trkpt><trkpt lat="39.766771311442376" lon="9.563065038272322"><ele>192.0</ele><time>2026-04-28T14:35:43.872Z</time></trkpt><trkpt lat="39.76657896138887" lon="9.563208931877343"><ele>192.0</ele><time>2026-04-28T14:35:44.872Z</time></trkpt><trkpt lat="39.766407813958516" lon="9.563344780819618"><ele>192.0</ele><time>2026-04-28T14:35:45.872Z</time></trkpt><trkpt lat="39.76622297347528" lon="9.563474372882663"><ele>192.0</ele><time>2026-04-28T14:35:46.872Z</time></trkpt><trkpt lat="39.76604668290198" lon="9.563609655870069"><ele>192.0</ele><time>2026-04-28T14:35:47.872Z</time></trkpt><trkpt lat="39.76585084493301" lon="9.563732464423952"><ele>192.0</ele><time>2026-04-28T14:35:48.872Z</time></trkpt><trkpt lat="39.76564777323597" lon="9.563849132045101"><ele>191.33333333333334</ele><time>2026-04-28T14:35:49.872Z</time></trkpt><trkpt lat="39.765435691321564" lon="9.563959476881116"><ele>190.66666666666669</ele><time>2026-04-28T14:35:50.872Z</time></trkpt><trkpt lat="39.765236045570994" lon="9.564069380174615"><ele>190.0</ele><time>2026-04-28T14:35:51.872Z</time></trkpt><trkpt lat="39.76504466282248" lon="9.564161102761696"><ele>190.0</ele><time>2026-04-28T14:35:52.872Z</time></trkpt><trkpt lat="39.764867821469096" lon="9.564255182097131"><ele>190.0</ele><time>2026-04-28T14:35:53.872Z</time></trkpt><trkpt lat="39.76469354588496" lon="9.564345254878983"><ele>190.0</ele><time>2026-04-28T14:35:54.872Z</time></trkpt><trkpt lat="39.76454344304159" lon="9.5644399025165"><ele>189.0</ele><time>2026-04-28T14:35:55.872Z</time></trkpt><trkpt lat="39.7644087519059" lon="9.564536532777316"><ele>188.0</ele><time>2026-04-28T14:35:56.872Z</time></trkpt><trkpt lat="39.764289578233075" lon="9.564649974398325"><ele>187.0</ele><time>2026-04-28T14:35:57.872Z</time></trkpt><trkpt lat="39.76417606123775" lon="9.5648007610607"><ele>187.0</ele><time>2026-04-28T14:35:58.872Z</time></trkpt><trkpt lat="39.76407079828992" lon="9.564954739790632"><ele>187.0</ele><time>2026-04-28T14:35:59.872Z</time></trkpt><trkpt lat="39.763970197345095" lon="9.565115456899612"><ele>187.0</ele><time>2026-04-28T14:36:00.872Z</time></trkpt><trkpt lat="39.763866156621184" lon="9.565270646498865"><ele>186.33333333333334</ele><time>2026-04-28T14:36:01.872Z</time></trkpt><trkpt lat="39.763760987586764" lon="9.565429975652355"><ele>185.66666666666666</ele><time>2026-04-28T14:36:02.872Z</time></trkpt><trkpt lat="39.763658402283944" lon="9.56558409559644"><ele>185.0</ele><time>2026-04-28T14:36:03.872Z</time></trkpt><trkpt lat="39.76354320764969" lon="9.565716178155533"><ele>184.66666666666666</ele><time>2026-04-28T14:36:04.872Z</time></trkpt><trkpt lat="39.76343530501784" lon="9.56585443411378"><ele>184.33333333333334</ele><time>2026-04-28T14:36:05.872Z</time></trkpt><trkpt lat="39.76330635809384" lon="9.56597945204161"><ele>184.0</ele><time>2026-04-28T14:36:06.872Z</time></trkpt><trkpt lat="39.76317111431005" lon="9.566088567460703"><ele>184.0</ele><time>2026-04-28T14:36:07.872Z</time></trkpt><trkpt lat="39.76302458334475" lon="9.566194455831914"><ele>184.0</ele><time>2026-04-28T14:36:08.872Z</time></trkpt><trkpt lat="39.762878115483204" lon="9.566283379677602"><ele>184.0</ele><time>2026-04-28T14:36:09.872Z</time></trkpt><trkpt lat="39.7627260554418" lon="9.566380872703286"><ele>183.0</ele><time>2026-04-28T14:36:10.872Z</time></trkpt><trkpt lat="39.76257766702655" lon="9.566480943865857"><ele>182.0</ele><time>2026-04-28T14:36:11.872Z</time></trkpt><trkpt lat="39.76242277297137" lon="9.566588621798626"><ele>181.0</ele><time>2026-04-28T14:36:12.872Z</time></trkpt><trkpt lat="39.76226562499576" lon="9.566690608505974"><ele>181.0</ele><time>2026-04-28T14:36:13.872Z</time></trkpt><trkpt lat="39.762101492637534" lon="9.566792808136192"><ele>181.0</ele><time>2026-04-28T14:36:14.872Z</time></trkpt><trkpt lat="39.76195211031507" lon="9.566898895363241"><ele>181.0</ele><time>2026-04-28T14:36:15.872Z</time></trkpt><trkpt lat="39.76178888992725" lon="9.567004908159577"><ele>180.33333333333334</ele><time>2026-04-28T14:36:16.872Z</time></trkpt><trkpt lat="39.761626755410056" lon="9.567108934192401"><ele>179.66666666666666</ele><time>2026-04-28T14:36:17.872Z</time></trkpt><trkpt lat="39.76146388292166" lon="9.56721614586458"><ele>179.0</ele><time>2026-04-28T14:36:18.872Z</time></trkpt><trkpt lat="39.761305860776424" lon="9.567333886788644"><ele>179.0</ele><time>2026-04-28T14:36:19.872Z</time></trkpt><trkpt lat="39.7611666557056" lon="9.56746656235714"><ele>179.0</ele><time>2026-04-28T14:36:20.872Z</time></trkpt><trkpt lat="39.761048623777974" lon="9.567614678073074"><ele>179.0</ele><time>2026-04-28T14:36:21.872Z</time></trkpt><trkpt lat="39.760951042093076" lon="9.567775280960504"><ele>179.33333333333331</ele><time>2026-04-28T14:36:22.872Z</time></trkpt><trkpt lat="39.76084639849333" lon="9.56794419831756"><ele>179.66666666666666</ele><time>2026-04-28T14:36:23.872Z</time></trkpt><trkpt lat="39.760751244052344" lon="9.568135687939266"><ele>180.0</ele><time>2026-04-28T14:36:24.872Z</time></trkpt><trkpt lat="39.760652063208255" lon="9.568310301024656"><ele>180.0</ele><time>2026-04-28T14:36:25.872Z</time></trkpt><trkpt lat="39.760540177753846" lon="9.568453205673334"><ele>180.0</ele><time>2026-04-28T14:36:26.872Z</time></trkpt><trkpt lat="39.7604260649731" lon="9.568563015955359"><ele>180.0</ele><time>2026-04-28T14:36:27.872Z</time></trkpt><trkpt lat="39.760292417613" lon="9.568640699719937"><ele>180.0</ele><time>2026-04-28T14:36:28.872Z</time></trkpt><trkpt lat="39.760144058780185" lon="9.56870130600727"><ele>178.33333333333334</ele><time>2026-04-28T14:36:29.872Z</time></trkpt><trkpt lat="39.75998248031293" lon="9.56874306234347"><ele>176.66666666666669</ele><time>2026-04-28T14:36:30.872Z</time></trkpt><trkpt lat="39.75981572013671" lon="9.568776818782817"><ele>175.0</ele><time>2026-04-28T14:36:31.872Z</time></trkpt><trkpt lat="39.75964161143405" lon="9.5688216112942"><ele>175.0</ele><time>2026-04-28T14:36:32.872Z</time></trkpt><trkpt lat="39.7594710211875" lon="9.568868479760818"><ele>175.0</ele><time>2026-04-28T14:36:33.872Z</time></trkpt><trkpt lat="39.75928725991662" lon="9.568926477709544"><ele>175.0</ele><time>2026-04-28T14:36:34.872Z</time></trkpt><trkpt lat="39.75911326028672" lon="9.569023543727472"><ele>175.33333333333334</ele><time>2026-04-28T14:36:35.872Z</time></trkpt><trkpt lat="39.75894181513921" lon="9.569134934136933"><ele>175.66666666666666</ele><time>2026-04-28T14:36:36.872Z</time></trkpt><trkpt lat="39.758774695890295" lon="9.569252594774557"><ele>176.0</ele><time>2026-04-28T14:36:37.872Z</time></trkpt><trkpt lat="39.758607397522276" lon="9.569381188936692"><ele>176.66666666666666</ele><time>2026-04-28T14:36:38.872Z</time></trkpt><trkpt lat="39.75843378840237" lon="9.569512488659965"><ele>177.33333333333334</ele><time>2026-04-28T14:36:39.872Z</time></trkpt><trkpt lat="39.75825599375911" lon="9.569643316389769"><ele>178.0</ele><time>2026-04-28T14:36:40.872Z</time></trkpt><trkpt lat="39.758096216227464" lon="9.569764150858092"><ele>177.66666666666669</ele><time>2026-04-28T14:36:41.872Z</time></trkpt><trkpt lat="39.75794189100187" lon="9.569870229020108"><ele>177.33333333333334</ele><time>2026-04-28T14:36:42.872Z</time></trkpt><trkpt lat="39.75777779868744" lon="9.569936397549755"><ele>177.0</ele><time>2026-04-28T14:36:43.872Z</time></trkpt><trkpt lat="39.7576070141518" lon="9.570003969634746"><ele>177.0</ele><time>2026-04-28T14:36:44.872Z</time></trkpt><trkpt lat="39.75743278434579" lon="9.570094547425612"><ele>177.0</ele><time>2026-04-28T14:36:45.872Z</time></trkpt><trkpt lat="39.75724492537825" lon="9.570196487423171"><ele>177.0</ele><time>2026-04-28T14:36:46.872Z</time></trkpt><trkpt lat="39.75706729468972" lon="9.570310177394548"><ele>175.0</ele><time>2026-04-28T14:36:47.872Z</time></trkpt><trkpt lat="39.75688627296806" lon="9.570441789628543"><ele>173.0</ele><time>2026-04-28T14:36:48.872Z</time></trkpt><trkpt lat="39.75671726748166" lon="9.570574925616627"><ele>171.0</ele><time>2026-04-28T14:36:49.872Z</time></trkpt><trkpt lat="39.75653780412228" lon="9.570720283916051"><ele>171.0</ele><time>2026-04-28T14:36:50.872Z</time></trkpt><trkpt lat="39.756368737937336" lon="9.570853127552782"><ele>171.0</ele><time>2026-04-28T14:36:51.872Z</time></trkpt><trkpt lat="39.75618171220771" lon="9.570973748106928"><ele>171.0</ele><time>2026-04-28T14:36:52.872Z</time></trkpt><trkpt lat="39.75598608003951" lon="9.571076537759055"><ele>170.33333333333334</ele><time>2026-04-28T14:36:53.872Z</time></trkpt><trkpt lat="39.75578735104987" lon="9.57118829392852"><ele>169.66666666666669</ele><time>2026-04-28T14:36:54.872Z</time></trkpt><trkpt lat="39.75559055478895" lon="9.571282386992577"><ele>169.0</ele><time>2026-04-28T14:36:55.872Z</time></trkpt><trkpt lat="39.75539308650595" lon="9.571392404814496"><ele>170.0</ele><time>2026-04-28T14:36:56.872Z</time></trkpt><trkpt lat="39.75519919407679" lon="9.57152474154606"><ele>171.0</ele><time>2026-04-28T14:36:57.872Z</time></trkpt><trkpt lat="39.755011204609495" lon="9.571656770353693"><ele>172.0</ele><time>2026-04-28T14:36:58.872Z</time></trkpt><trkpt lat="39.75481789200268" lon="9.571775746964354"><ele>172.0</ele><time>2026-04-28T14:36:59.872Z</time></trkpt><trkpt lat="39.754620983230154" lon="9.57190194192602"><ele>172.0</ele><time>2026-04-28T14:37:00.873Z</time></trkpt><trkpt lat="39.75443302820505" lon="9.572025290949531"><ele>172.0</ele><time>2026-04-28T14:37:01.873Z</time></trkpt><trkpt lat="39.7542617566412" lon="9.572146757594476"><ele>170.33333333333334</ele><time>2026-04-28T14:37:02.873Z</time></trkpt><trkpt lat="39.75409826245352" lon="9.57227239796604"><ele>168.66666666666666</ele><time>2026-04-28T14:37:03.873Z</time></trkpt><trkpt lat="39.75393461993332" lon="9.572406656120613"><ele>167.0</ele><time>2026-04-28T14:37:04.873Z</time></trkpt><trkpt lat="39.753759685161526" lon="9.572511814268244"><ele>167.0</ele><time>2026-04-28T14:37:05.873Z</time></trkpt><trkpt lat="39.75357043677328" lon="9.572638236106831"><ele>167.0</ele><time>2026-04-28T14:37:06.873Z</time></trkpt><trkpt lat="39.75337280772969" lon="9.572759157521759"><ele>167.0</ele><time>2026-04-28T14:37:07.873Z</time></trkpt><trkpt lat="39.75316920956295" lon="9.572859440833458"><ele>166.0</ele><time>2026-04-28T14:37:08.873Z</time></trkpt><trkpt lat="39.752963665864115" lon="9.572980599972071"><ele>165.0</ele><time>2026-04-28T14:37:09.873Z</time></trkpt><trkpt lat="39.75277321722968" lon="9.573089331209873"><ele>164.0</ele><time>2026-04-28T14:37:10.873Z</time></trkpt><trkpt lat="39.752591454725405" lon="9.573193135609081"><ele>164.0</ele><time>2026-04-28T14:37:11.873Z</time></trkpt><trkpt lat="39.75239770050396" lon="9.573300756241677"><ele>164.0</ele><time>2026-04-28T14:37:12.873Z</time></trkpt><trkpt lat="39.7521901004251" lon="9.573413557617942"><ele>164.0</ele><time>2026-04-28T14:37:13.873Z</time></trkpt><trkpt lat="39.751974890969834" lon="9.573531694554688"><ele>164.0</ele><time>2026-04-28T14:37:14.873Z</time></trkpt><trkpt lat="39.75175368740261" lon="9.573653914810972"><ele>164.0</ele><time>2026-04-28T14:37:15.873Z</time></trkpt><trkpt lat="39.751524258448285" lon="9.573782958334132"><ele>164.0</ele><time>2026-04-28T14:37:16.873Z</time></trkpt><trkpt lat="39.75129789655656" lon="9.573914283024633"><ele>164.0</ele><time>2026-04-28T14:37:17.873Z</time></trkpt><trkpt lat="39.751071102691775" lon="9.574048642426941"><ele>163.5</ele><time>2026-04-28T14:37:18.873Z</time></trkpt><trkpt lat="39.75084713819565" lon="9.574176843516328"><ele>163.0</ele><time>2026-04-28T14:37:19.873Z</time></trkpt><trkpt lat="39.750628770585436" lon="9.574296444151711"><ele>163.0</ele><time>2026-04-28T14:37:20.873Z</time></trkpt><trkpt lat="39.750433582302875" lon="9.574407311964233"><ele>163.0</ele><time>2026-04-28T14:37:21.873Z</time></trkpt><trkpt lat="39.75024735942863" lon="9.574514857882575"><ele>163.0</ele><time>2026-04-28T14:37:22.873Z</time></trkpt><trkpt lat="39.750068614001776" lon="9.574609177979903"><ele>162.33333333333334</ele><time>2026-04-28T14:37:23.873Z</time></trkpt><trkpt lat="39.74990488620047" lon="9.574700674131387"><ele>161.66666666666666</ele><time>2026-04-28T14:37:24.873Z</time></trkpt><trkpt lat="39.749746637474395" lon="9.5747809951036"><ele>161.0</ele><time>2026-04-28T14:37:25.873Z</time></trkpt><trkpt lat="39.7495817127599" lon="9.574838997864324"><ele>161.0</ele><time>2026-04-28T14:37:26.873Z</time></trkpt><trkpt lat="39.74941293394412" lon="9.574886117135886"><ele>161.0</ele><time>2026-04-28T14:37:27.873Z</time></trkpt><trkpt lat="39.749238077375104" lon="9.57492221477582"><ele>161.0</ele><time>2026-04-28T14:37:28.872Z</time></trkpt><trkpt lat="39.74905273832879" lon="9.574911534958273"><ele>161.33333333333331</ele><time>2026-04-28T14:37:29.872Z</time></trkpt><trkpt lat="39.74886436656522" lon="9.574937492303148"><ele>161.66666666666666</ele><time>2026-04-28T14:37:30.872Z</time></trkpt><trkpt lat="39.74867412231256" lon="9.574966398045111"><ele>162.0</ele><time>2026-04-28T14:37:31.872Z</time></trkpt><trkpt lat="39.748489506160375" lon="9.574997547843108"><ele>161.33333333333334</ele><time>2026-04-28T14:37:32.872Z</time></trkpt><trkpt lat="39.74831206717254" lon="9.575055124669715"><ele>160.66666666666669</ele><time>2026-04-28T14:37:33.872Z</time></trkpt><trkpt lat="39.74813961691903" lon="9.575154838488743"><ele>160.0</ele><time>2026-04-28T14:37:34.873Z</time></trkpt><trkpt lat="39.74796320242065" lon="9.575215278091074"><ele>160.0</ele><time>2026-04-28T14:37:35.873Z</time></trkpt><trkpt lat="39.74776872076397" lon="9.575227197878764"><ele>160.0</ele><time>2026-04-28T14:37:36.873Z</time></trkpt><trkpt lat="39.74757530196972" lon="9.575245549955872"><ele>160.0</ele><time>2026-04-28T14:37:37.873Z</time></trkpt><trkpt lat="39.747388848495845" lon="9.575285405763026"><ele>159.33333333333334</ele><time>2026-04-28T14:37:38.873Z</time></trkpt><trkpt lat="39.74720602476667" lon="9.575353659716766"><ele>158.66666666666666</ele><time>2026-04-28T14:37:39.873Z</time></trkpt><trkpt lat="39.747023416026316" lon="9.5754335069842"><ele>158.0</ele><time>2026-04-28T14:37:40.873Z</time></trkpt><trkpt lat="39.746833454111396" lon="9.575510832247316"><ele>157.33333333333331</ele><time>2026-04-28T14:37:41.873Z</time></trkpt><trkpt lat="39.74663613822846" lon="9.575591150989263"><ele>156.66666666666666</ele><time>2026-04-28T14:37:42.873Z</time></trkpt><trkpt lat="39.74644115082242" lon="9.575670521913441"><ele>156.0</ele><time>2026-04-28T14:37:43.873Z</time></trkpt><trkpt lat="39.746245477454885" lon="9.575750172050604"><ele>156.0</ele><time>2026-04-28T14:37:44.873Z</time></trkpt><trkpt lat="39.746047892166594" lon="9.57583456446072"><ele>156.0</ele><time>2026-04-28T14:37:45.873Z</time></trkpt><trkpt lat="39.74584796066773" lon="9.575923819551035"><ele>156.0</ele><time>2026-04-28T14:37:46.873Z</time></trkpt><trkpt lat="39.74567003320333" lon="9.5760032513782"><ele>155.0</ele><time>2026-04-28T14:37:47.873Z</time></trkpt><trkpt lat="39.74550101571629" lon="9.576099053740245"><ele>154.0</ele><time>2026-04-28T14:37:48.873Z</time></trkpt><trkpt lat="39.74533467918141" lon="9.576175366852299"><ele>153.0</ele><time>2026-04-28T14:37:49.873Z</time></trkpt><trkpt lat="39.74518302284207" lon="9.576234699083148"><ele>153.0</ele><time>2026-04-28T14:37:50.873Z</time></trkpt><trkpt lat="39.74503981937455" lon="9.576285592994337"><ele>153.0</ele><time>2026-04-28T14:37:51.873Z</time></trkpt><trkpt lat="39.74490102564819" lon="9.576308541296164"><ele>153.0</ele><time>2026-04-28T14:37:52.873Z</time></trkpt><trkpt lat="39.74475774688166" lon="9.576301766682432"><ele>153.0</ele><time>2026-04-28T14:37:53.873Z</time></trkpt><trkpt lat="39.74462251159151" lon="9.576292660838263"><ele>153.0</ele><time>2026-04-28T14:37:54.873Z</time></trkpt><trkpt lat="39.74447917922986" lon="9.576276356701152"><ele>153.0</ele><time>2026-04-28T14:37:55.873Z</time></trkpt><trkpt lat="39.744328424983934" lon="9.576260312718393"><ele>153.0</ele><time>2026-04-28T14:37:56.873Z</time></trkpt><trkpt lat="39.7441808412735" lon="9.57625037632289"><ele>153.0</ele><time>2026-04-28T14:37:57.873Z</time></trkpt><trkpt lat="39.74403619650289" lon="9.576241305635696"><ele>153.0</ele><time>2026-04-28T14:37:58.873Z</time></trkpt><trkpt lat="39.743892136693574" lon="9.576232271634224"><ele>153.0</ele><time>2026-04-28T14:37:59.873Z</time></trkpt><trkpt lat="39.74375378137501" lon="9.576232900386554"><ele>153.0</ele><time>2026-04-28T14:38:00.873Z</time></trkpt><trkpt lat="39.743617650232665" lon="9.57618125245841"><ele>153.0</ele><time>2026-04-28T14:38:01.873Z</time></trkpt><trkpt lat="39.74347450824983" lon="9.576129088310132"><ele>153.0</ele><time>2026-04-28T14:38:02.873Z</time></trkpt><trkpt lat="39.74333286113901" lon="9.576056740741151"><ele>153.0</ele><time>2026-04-28T14:38:03.873Z</time></trkpt><trkpt lat="39.74319177111938" lon="9.575977053388415"><ele>153.0</ele><time>2026-04-28T14:38:04.873Z</time></trkpt><trkpt lat="39.74306540318769" lon="9.575872432433295"><ele>153.0</ele><time>2026-04-28T14:38:05.873Z</time></trkpt><trkpt lat="39.74293947601994" lon="9.575788489389803"><ele>153.0</ele><time>2026-04-28T14:38:06.873Z</time></trkpt><trkpt lat="39.74282631998115" lon="9.575713059587477"><ele>153.0</ele><time>2026-04-28T14:38:07.873Z</time></trkpt><trkpt lat="39.742721338700825" lon="9.575643247694149"><ele>153.0</ele><time>2026-04-28T14:38:08.873Z</time></trkpt><trkpt lat="39.742627114028764" lon="9.57558128881998"><ele>152.5</ele><time>2026-04-28T14:38:09.873Z</time></trkpt><trkpt lat="39.74254872026359" lon="9.575529739739812"><ele>152.0</ele><time>2026-04-28T14:38:10.873Z</time></trkpt><trkpt lat="39.74248543337587" lon="9.575488124499692"><ele>151.5</ele><time>2026-04-28T14:38:11.873Z</time></trkpt><trkpt lat="39.74235947825907" lon="9.575662018031847"><ele>151.0</ele><time>2026-04-28T14:38:13.873Z</time></trkpt><trkpt lat="39.7423433039191" lon="9.575818218874186"><ele>151.0</ele><time>2026-04-28T14:38:15.873Z</time></trkpt><trkpt lat="39.742337912708415" lon="9.575909764019766"><ele>151.0</ele><time>2026-04-28T14:38:16.873Z</time></trkpt><trkpt lat="39.74233238896494" lon="9.576021393153272"><ele>151.0</ele><time>2026-04-28T14:38:17.873Z</time></trkpt><trkpt lat="39.74233267633512" lon="9.576146700043454"><ele>151.0</ele><time>2026-04-28T14:38:18.873Z</time></trkpt><trkpt lat="39.742363344516924" lon="9.576278593234699"><ele>151.0</ele><time>2026-04-28T14:38:19.873Z</time></trkpt><trkpt lat="39.74239420923504" lon="9.576420563830954"><ele>150.75</ele><time>2026-04-28T14:38:20.873Z</time></trkpt><trkpt lat="39.74242062047419" lon="9.576563996254404"><ele>150.5</ele><time>2026-04-28T14:38:21.873Z</time></trkpt><trkpt lat="39.742457300396644" lon="9.576716746530344"><ele>150.25</ele><time>2026-04-28T14:38:22.873Z</time></trkpt><trkpt lat="39.74249127970102" lon="9.576872424455026"><ele>150.0</ele><time>2026-04-28T14:38:23.873Z</time></trkpt><trkpt lat="39.74252572521642" lon="9.577035855718826"><ele>149.75</ele><time>2026-04-28T14:38:24.873Z</time></trkpt><trkpt lat="39.74255831931286" lon="9.577201299448975"><ele>149.5</ele><time>2026-04-28T14:38:25.873Z</time></trkpt><trkpt lat="39.74258508507318" lon="9.577372982898192"><ele>149.25</ele><time>2026-04-28T14:38:26.873Z</time></trkpt><trkpt lat="39.7426120377022" lon="9.577553137921274"><ele>149.0</ele><time>2026-04-28T14:38:27.873Z</time></trkpt><trkpt lat="39.74262929505964" lon="9.577725964727673"><ele>149.0</ele><time>2026-04-28T14:38:28.873Z</time></trkpt><trkpt lat="39.74263180515487" lon="9.577891156105698"><ele>149.0</ele><time>2026-04-28T14:38:29.873Z</time></trkpt><trkpt lat="39.742630833131365" lon="9.57804751511405"><ele>149.0</ele><time>2026-04-28T14:38:30.873Z</time></trkpt><trkpt lat="39.74262445599103" lon="9.57820144621193"><ele>149.0</ele><time>2026-04-28T14:38:31.873Z</time></trkpt><trkpt lat="39.74262028354402" lon="9.578347995705839"><ele>149.0</ele><time>2026-04-28T14:38:32.873Z</time></trkpt><trkpt lat="39.74260603763077" lon="9.57848597414261"><ele>149.0</ele><time>2026-04-28T14:38:33.873Z</time></trkpt><trkpt lat="39.74256944121125" lon="9.578611239918775"><ele>149.0</ele><time>2026-04-28T14:38:34.873Z</time></trkpt><trkpt lat="39.742513269037374" lon="9.57871707531728"><ele>149.0</ele><time>2026-04-28T14:38:35.873Z</time></trkpt><trkpt lat="39.74245043442895" lon="9.578795451423307"><ele>149.0</ele><time>2026-04-28T14:38:36.873Z</time></trkpt><trkpt lat="39.74236063176341" lon="9.578845446658324"><ele>149.0</ele><time>2026-04-28T14:38:37.873Z</time></trkpt><trkpt lat="39.74226705674945" lon="9.578870126625382"><ele>149.0</ele><time>2026-04-28T14:38:38.873Z</time></trkpt><trkpt lat="39.74216144892878" lon="9.57886659856169"><ele>149.0</ele><time>2026-04-28T14:38:39.873Z</time></trkpt><trkpt lat="39.742060293562155" lon="9.578847614060447"><ele>149.0</ele><time>2026-04-28T14:38:40.873Z</time></trkpt><trkpt lat="39.741956858966695" lon="9.578838214413302"><ele>149.0</ele><time>2026-04-28T14:38:41.873Z</time></trkpt><trkpt lat="39.74183934539078" lon="9.57877715864463"><ele>149.0</ele><time>2026-04-28T14:38:42.873Z</time></trkpt><trkpt lat="39.74171811943039" lon="9.578739416560017"><ele>149.0</ele><time>2026-04-28T14:38:43.873Z</time></trkpt><trkpt lat="39.74160079515823" lon="9.578705297479964"><ele>149.0</ele><time>2026-04-28T14:38:44.873Z</time></trkpt><trkpt lat="39.74148014885858" lon="9.578663599671746"><ele>149.0</ele><time>2026-04-28T14:38:45.873Z</time></trkpt><trkpt lat="39.74135349666817" lon="9.57862197970696"><ele>149.25</ele><time>2026-04-28T14:38:46.873Z</time></trkpt><trkpt lat="39.74121594262672" lon="9.578591532612672"><ele>149.5</ele><time>2026-04-28T14:38:47.873Z</time></trkpt><trkpt lat="39.74107342961258" lon="9.578557922030903"><ele>149.75</ele><time>2026-04-28T14:38:48.873Z</time></trkpt><trkpt lat="39.74093604656339" lon="9.578518991545014"><ele>150.0</ele><time>2026-04-28T14:38:49.873Z</time></trkpt><trkpt lat="39.74079418140224" lon="9.578479131309415"><ele>149.25</ele><time>2026-04-28T14:38:50.873Z</time></trkpt><trkpt lat="39.74065443226191" lon="9.578439176508256"><ele>148.5</ele><time>2026-04-28T14:38:51.874Z</time></trkpt><trkpt lat="39.74051328796894" lon="9.578400726737796"><ele>147.75</ele><time>2026-04-28T14:38:52.874Z</time></trkpt><trkpt lat="39.740368621092856" lon="9.578357793421574"><ele>147.0</ele><time>2026-04-28T14:38:53.874Z</time></trkpt><trkpt lat="39.74022112969772" lon="9.578314873624507"><ele>146.66666666666666</ele><time>2026-04-28T14:38:54.874Z</time></trkpt><trkpt lat="39.74006925549576" lon="9.57827374375131"><ele>146.33333333333331</ele><time>2026-04-28T14:38:55.874Z</time></trkpt><trkpt lat="39.73991311382311" lon="9.578232860931426"><ele>146.0</ele><time>2026-04-28T14:38:56.874Z</time></trkpt><trkpt lat="39.7397449646317" lon="9.578191000705091"><ele>146.0</ele><time>2026-04-28T14:38:57.874Z</time></trkpt><trkpt lat="39.7395831748328" lon="9.578132463799152"><ele>146.0</ele><time>2026-04-28T14:38:58.874Z</time></trkpt><trkpt lat="39.73941775904895" lon="9.578094202077413"><ele>146.0</ele><time>2026-04-28T14:38:59.874Z</time></trkpt><trkpt lat="39.7392509571116" lon="9.578058233730331"><ele>145.33333333333331</ele><time>2026-04-28T14:39:00.874Z</time></trkpt><trkpt lat="39.739068808917985" lon="9.578026505267644"><ele>144.66666666666666</ele><time>2026-04-28T14:39:01.874Z</time></trkpt><trkpt lat="39.738892729536445" lon="9.577999103462746"><ele>144.0</ele><time>2026-04-28T14:39:02.874Z</time></trkpt><trkpt lat="39.73871332748137" lon="9.577975459078253"><ele>144.33333333333334</ele><time>2026-04-28T14:39:03.874Z</time></trkpt><trkpt lat="39.73852360984251" lon="9.577974944006069"><ele>144.66666666666669</ele><time>2026-04-28T14:39:04.874Z</time></trkpt><trkpt lat="39.73833431390282" lon="9.577959215521586"><ele>145.0</ele><time>2026-04-28T14:39:05.874Z</time></trkpt><trkpt lat="39.738143932664755" lon="9.577946195507218"><ele>145.0</ele><time>2026-04-28T14:39:06.874Z</time></trkpt><trkpt lat="39.7379507670513" lon="9.577928112514481"><ele>145.0</ele><time>2026-04-28T14:39:07.874Z</time></trkpt><trkpt lat="39.73775615805308" lon="9.577908768145413"><ele>145.0</ele><time>2026-04-28T14:39:08.874Z</time></trkpt><trkpt lat="39.73756180890403" lon="9.577894773762855"><ele>144.33333333333334</ele><time>2026-04-28T14:39:09.874Z</time></trkpt><trkpt lat="39.737369365890785" lon="9.577885686734575"><ele>143.66666666666666</ele><time>2026-04-28T14:39:10.874Z</time></trkpt><trkpt lat="39.73717235597297" lon="9.577874392530541"><ele>143.0</ele><time>2026-04-28T14:39:11.874Z</time></trkpt><trkpt lat="39.73697236352771" lon="9.577863283419148"><ele>143.33333333333331</ele><time>2026-04-28T14:39:12.874Z</time></trkpt><trkpt lat="39.736769787067615" lon="9.577849865056058"><ele>143.66666666666666</ele><time>2026-04-28T14:39:13.874Z</time></trkpt><trkpt lat="39.73656509290615" lon="9.577835331313686"><ele>144.0</ele><time>2026-04-28T14:39:14.874Z</time></trkpt><trkpt lat="39.736356761768626" lon="9.577823799984497"><ele>144.0</ele><time>2026-04-28T14:39:15.874Z</time></trkpt><trkpt lat="39.73614381529632" lon="9.577817494558657"><ele>144.0</ele><time>2026-04-28T14:39:16.874Z</time></trkpt><trkpt lat="39.73592705714071" lon="9.577810066279294"><ele>144.0</ele><time>2026-04-28T14:39:17.874Z</time></trkpt><trkpt lat="39.735708946789295" lon="9.57780407530019"><ele>143.33333333333334</ele><time>2026-04-28T14:39:18.874Z</time></trkpt><trkpt lat="39.735486411611504" lon="9.577803806473353"><ele>142.66666666666669</ele><time>2026-04-28T14:39:19.874Z</time></trkpt><trkpt lat="39.73526534525234" lon="9.577805236775102"><ele>142.0</ele><time>2026-04-28T14:39:20.874Z</time></trkpt><trkpt lat="39.7350419150071" lon="9.5778096153502"><ele>142.0</ele><time>2026-04-28T14:39:21.874Z</time></trkpt><trkpt lat="39.734818680058396" lon="9.577816621810552"><ele>142.0</ele><time>2026-04-28T14:39:22.874Z</time></trkpt><trkpt lat="39.73459285396189" lon="9.57783012038018"><ele>142.0</ele><time>2026-04-28T14:39:23.874Z</time></trkpt><trkpt lat="39.734365933423284" lon="9.57784979869437"><ele>140.5</ele><time>2026-04-28T14:39:24.874Z</time></trkpt><trkpt lat="39.734138647819044" lon="9.577872145931137"><ele>139.0</ele><time>2026-04-28T14:39:25.874Z</time></trkpt><trkpt lat="39.733908263435666" lon="9.577897834017833"><ele>139.0</ele><time>2026-04-28T14:39:26.874Z</time></trkpt><trkpt lat="39.7336778475759" lon="9.5779294664257"><ele>139.0</ele><time>2026-04-28T14:39:27.874Z</time></trkpt><trkpt lat="39.73344774293719" lon="9.577962119635277"><ele>139.0</ele><time>2026-04-28T14:39:28.874Z</time></trkpt><trkpt lat="39.73321824165624" lon="9.578003619852748"><ele>139.0</ele><time>2026-04-28T14:39:29.873Z</time></trkpt><trkpt lat="39.73298636352403" lon="9.578044468073113"><ele>139.0</ele><time>2026-04-28T14:39:30.873Z</time></trkpt><trkpt lat="39.732754115376004" lon="9.578091577256378"><ele>139.0</ele><time>2026-04-28T14:39:31.873Z</time></trkpt><trkpt lat="39.732523398499566" lon="9.578144258283599"><ele>139.5</ele><time>2026-04-28T14:39:32.873Z</time></trkpt><trkpt lat="39.73228994418258" lon="9.57820467199015"><ele>140.0</ele><time>2026-04-28T14:39:33.873Z</time></trkpt><trkpt lat="39.73205797559131" lon="9.578260333248416"><ele>139.5</ele><time>2026-04-28T14:39:34.873Z</time></trkpt><trkpt lat="39.731824354789225" lon="9.578318116383208"><ele>139.0</ele><time>2026-04-28T14:39:35.873Z</time></trkpt><trkpt lat="39.73159079866266" lon="9.578383548096143"><ele>139.0</ele><time>2026-04-28T14:39:36.873Z</time></trkpt><trkpt lat="39.73135672630781" lon="9.578447495436405"><ele>139.0</ele><time>2026-04-28T14:39:37.873Z</time></trkpt><trkpt lat="39.73112482085944" lon="9.578513525301213"><ele>137.5</ele><time>2026-04-28T14:39:38.874Z</time></trkpt><trkpt lat="39.73088937074483" lon="9.578578400794479"><ele>136.0</ele><time>2026-04-28T14:39:39.873Z</time></trkpt><trkpt lat="39.73065503921171" lon="9.578642713966445"><ele>135.0</ele><time>2026-04-28T14:39:40.873Z</time></trkpt><trkpt lat="39.73041479240277" lon="9.578709078348968"><ele>134.0</ele><time>2026-04-28T14:39:41.873Z</time></trkpt><trkpt lat="39.73018444308137" lon="9.578767892810896"><ele>134.0</ele><time>2026-04-28T14:39:42.873Z</time></trkpt><trkpt lat="39.729949396185724" lon="9.578833073256398"><ele>134.0</ele><time>2026-04-28T14:39:43.873Z</time></trkpt><trkpt lat="39.72972306625189" lon="9.578900102960198"><ele>134.0</ele><time>2026-04-28T14:39:44.873Z</time></trkpt><trkpt lat="39.72949698986922" lon="9.578960855716376"><ele>134.0</ele><time>2026-04-28T14:39:45.873Z</time></trkpt><trkpt lat="39.72927154390156" lon="9.579026747305434"><ele>135.5</ele><time>2026-04-28T14:39:46.873Z</time></trkpt><trkpt lat="39.729043968013656" lon="9.579097421163722"><ele>137.0</ele><time>2026-04-28T14:39:47.873Z</time></trkpt><trkpt lat="39.728817620310416" lon="9.579163018775322"><ele>137.0</ele><time>2026-04-28T14:39:48.873Z</time></trkpt><trkpt lat="39.72858530874198" lon="9.579228458184211"><ele>137.0</ele><time>2026-04-28T14:39:49.873Z</time></trkpt><trkpt lat="39.72835521388579" lon="9.579284141834043"><ele>138.5</ele><time>2026-04-28T14:39:50.873Z</time></trkpt><trkpt lat="39.72812867727315" lon="9.57935043822534"><ele>140.0</ele><time>2026-04-28T14:39:51.873Z</time></trkpt><trkpt lat="39.727906001973636" lon="9.579415570515181"><ele>139.5</ele><time>2026-04-28T14:39:52.873Z</time></trkpt><trkpt lat="39.72768144798116" lon="9.579480439370096"><ele>139.0</ele><time>2026-04-28T14:39:53.873Z</time></trkpt><trkpt lat="39.72745875503721" lon="9.579548394421026"><ele>137.66666666666669</ele><time>2026-04-28T14:39:54.873Z</time></trkpt><trkpt lat="39.72724114428116" lon="9.579617720400952"><ele>136.33333333333334</ele><time>2026-04-28T14:39:55.873Z</time></trkpt><trkpt lat="39.72702350255049" lon="9.579692151937838"><ele>135.0</ele><time>2026-04-28T14:39:56.873Z</time></trkpt><trkpt lat="39.726806892621376" lon="9.579773622158866"><ele>135.0</ele><time>2026-04-28T14:39:57.873Z</time></trkpt><trkpt lat="39.72658776428136" lon="9.579861326670567"><ele>135.0</ele><time>2026-04-28T14:39:58.873Z</time></trkpt><trkpt lat="39.72636609087691" lon="9.57994686231778"><ele>135.0</ele><time>2026-04-28T14:39:59.873Z</time></trkpt><trkpt lat="39.7261440640195" lon="9.580036471028528"><ele>135.0</ele><time>2026-04-28T14:40:00.873Z</time></trkpt><trkpt lat="39.72592039104177" lon="9.580128614505334"><ele>135.5</ele><time>2026-04-28T14:40:01.873Z</time></trkpt><trkpt lat="39.725693674261656" lon="9.580224584216152"><ele>136.0</ele><time>2026-04-28T14:40:02.873Z</time></trkpt><trkpt lat="39.72546849533063" lon="9.580324662122976"><ele>135.0</ele><time>2026-04-28T14:40:03.873Z</time></trkpt><trkpt lat="39.72524260247909" lon="9.5804293235314"><ele>134.0</ele><time>2026-04-28T14:40:04.873Z</time></trkpt><trkpt lat="39.72501713915018" lon="9.580538618257334"><ele>133.0</ele><time>2026-04-28T14:40:05.873Z</time></trkpt><trkpt lat="39.72478304355391" lon="9.580656440318728"><ele>132.0</ele><time>2026-04-28T14:40:06.874Z</time></trkpt><trkpt lat="39.724523229441274" lon="9.580789616595373"><ele>131.0</ele><time>2026-04-28T14:40:07.874Z</time></trkpt><trkpt lat="39.7242290975684" lon="9.580956436110975"><ele>130.0</ele><time>2026-04-28T14:40:08.874Z</time></trkpt><trkpt lat="39.723924599906255" lon="9.581101577019368"><ele>129.5</ele><time>2026-04-28T14:40:09.874Z</time></trkpt><trkpt lat="39.72365292045582" lon="9.581195517484725"><ele>129.0</ele><time>2026-04-28T14:40:11.874Z</time></trkpt><trkpt lat="39.72342427428789" lon="9.581287223058153"><ele>128.5</ele><time>2026-04-28T14:40:12.874Z</time></trkpt><trkpt lat="39.72319572749791" lon="9.581372450851731"><ele>128.0</ele><time>2026-04-28T14:40:13.874Z</time></trkpt><trkpt lat="39.72296010489105" lon="9.581429215603142"><ele>128.0</ele><time>2026-04-28T14:40:14.874Z</time></trkpt><trkpt lat="39.722731735815856" lon="9.581485100041006"><ele>128.0</ele><time>2026-04-28T14:40:15.874Z</time></trkpt><trkpt lat="39.722502987884106" lon="9.58152824523955"><ele>128.0</ele><time>2026-04-28T14:40:16.874Z</time></trkpt><trkpt lat="39.72227198785316" lon="9.581560284045716"><ele>128.0</ele><time>2026-04-28T14:40:17.874Z</time></trkpt><trkpt lat="39.722036958677485" lon="9.581583708006715"><ele>128.0</ele><time>2026-04-28T14:40:18.874Z</time></trkpt><trkpt lat="39.7217966023444" lon="9.581605451311493"><ele>128.0</ele><time>2026-04-28T14:40:19.874Z</time></trkpt><trkpt lat="39.72155700101197" lon="9.58162297607858"><ele>128.0</ele><time>2026-04-28T14:40:20.874Z</time></trkpt><trkpt lat="39.721315176369636" lon="9.581640159014633"><ele>128.0</ele><time>2026-04-28T14:40:21.874Z</time></trkpt><trkpt lat="39.72108242587991" lon="9.581661871824526"><ele>127.33333333333333</ele><time>2026-04-28T14:40:22.874Z</time></trkpt><trkpt lat="39.72085634353399" lon="9.581687002019047"><ele>126.66666666666666</ele><time>2026-04-28T14:40:23.874Z</time></trkpt><trkpt lat="39.72063691713149" lon="9.581719259581638"><ele>126.0</ele><time>2026-04-28T14:40:24.874Z</time></trkpt><trkpt lat="39.72041923651376" lon="9.581760825919504"><ele>126.0</ele><time>2026-04-28T14:40:25.874Z</time></trkpt><trkpt lat="39.72020431149226" lon="9.581820551407962"><ele>126.0</ele><time>2026-04-28T14:40:26.874Z</time></trkpt><trkpt lat="39.719991065958695" lon="9.581913122143435"><ele>126.0</ele><time>2026-04-28T14:40:27.874Z</time></trkpt><trkpt lat="39.719783432799254" lon="9.58198864623667"><ele>126.0</ele><time>2026-04-28T14:40:28.874Z</time></trkpt><trkpt lat="39.719580261281266" lon="9.58207586704392"><ele>126.0</ele><time>2026-04-28T14:40:29.874Z</time></trkpt><trkpt lat="39.719383381785164" lon="9.582172363666766"><ele>126.0</ele><time>2026-04-28T14:40:30.874Z</time></trkpt><trkpt lat="39.719190437499044" lon="9.582283765767949"><ele>126.0</ele><time>2026-04-28T14:40:31.874Z</time></trkpt><trkpt lat="39.719000649412955" lon="9.582409323774504"><ele>126.0</ele><time>2026-04-28T14:40:32.874Z</time></trkpt><trkpt lat="39.7188276988204" lon="9.58257352397701"><ele>126.0</ele><time>2026-04-28T14:40:33.874Z</time></trkpt><trkpt lat="39.718649711188355" lon="9.582723061962325"><ele>125.33333333333334</ele><time>2026-04-28T14:40:34.874Z</time></trkpt><trkpt lat="39.71847102093782" lon="9.582882578454344"><ele>124.66666666666667</ele><time>2026-04-28T14:40:35.874Z</time></trkpt><trkpt lat="39.718293565609166" lon="9.583053119448454"><ele>124.0</ele><time>2026-04-28T14:40:36.874Z</time></trkpt><trkpt lat="39.71811701728923" lon="9.583229874661871"><ele>124.0</ele><time>2026-04-28T14:40:37.874Z</time></trkpt><trkpt lat="39.717938334064385" lon="9.583409744423275"><ele>124.0</ele><time>2026-04-28T14:40:38.874Z</time></trkpt><trkpt lat="39.71775409610477" lon="9.58358636969388"><ele>124.0</ele><time>2026-04-28T14:40:39.874Z</time></trkpt><trkpt lat="39.717568168590255" lon="9.5837634155492"><ele>124.0</ele><time>2026-04-28T14:40:40.874Z</time></trkpt><trkpt lat="39.71738643137546" lon="9.583935977577848"><ele>124.0</ele><time>2026-04-28T14:40:41.874Z</time></trkpt><trkpt lat="39.71720400565243" lon="9.584111245325868"><ele>124.0</ele><time>2026-04-28T14:40:42.874Z</time></trkpt><trkpt lat="39.71702219843149" lon="9.58428792490179"><ele>123.5</ele><time>2026-04-28T14:40:43.874Z</time></trkpt><trkpt lat="39.71684145332061" lon="9.584464193897773"><ele>123.0</ele><time>2026-04-28T14:40:44.874Z</time></trkpt><trkpt lat="39.716663083611635" lon="9.5846412157666"><ele>123.0</ele><time>2026-04-28T14:40:45.874Z</time></trkpt><trkpt lat="39.71648745577719" lon="9.584814658201761"><ele>123.0</ele><time>2026-04-28T14:40:46.874Z</time></trkpt><trkpt lat="39.716309469220505" lon="9.584981317522677"><ele>123.0</ele><time>2026-04-28T14:40:47.874Z</time></trkpt><trkpt lat="39.716131152131524" lon="9.58514886872033"><ele>123.0</ele><time>2026-04-28T14:40:48.874Z</time></trkpt><trkpt lat="39.71595647047154" lon="9.585312340685112"><ele>123.0</ele><time>2026-04-28T14:40:49.874Z</time></trkpt><trkpt lat="39.715774081448096" lon="9.585467397397615"><ele>123.0</ele><time>2026-04-28T14:40:50.874Z</time></trkpt><trkpt lat="39.715587434499284" lon="9.58561087590579"><ele>123.33333333333334</ele><time>2026-04-28T14:40:51.874Z</time></trkpt><trkpt lat="39.7153956707878" lon="9.585743083765344"><ele>123.66666666666667</ele><time>2026-04-28T14:40:52.874Z</time></trkpt><trkpt lat="39.715198311800044" lon="9.585869915690296"><ele>124.0</ele><time>2026-04-28T14:40:53.874Z</time></trkpt><trkpt lat="39.71499881431803" lon="9.5859920373115"><ele>124.0</ele><time>2026-04-28T14:40:54.874Z</time></trkpt><trkpt lat="39.714793054172354" lon="9.586105460384008"><ele>124.0</ele><time>2026-04-28T14:40:55.874Z</time></trkpt><trkpt lat="39.714580410060684" lon="9.586212440268845"><ele>125.0</ele><time>2026-04-28T14:40:56.874Z</time></trkpt><trkpt lat="39.714358986982795" lon="9.586311441100387"><ele>126.0</ele><time>2026-04-28T14:40:57.874Z</time></trkpt><trkpt lat="39.714135687244735" lon="9.586396877322922"><ele>126.0</ele><time>2026-04-28T14:40:58.874Z</time></trkpt><trkpt lat="39.71391204507248" lon="9.586473395348056"><ele>126.0</ele><time>2026-04-28T14:40:59.874Z</time></trkpt><trkpt lat="39.71368038295567" lon="9.58654454088921"><ele>125.5</ele><time>2026-04-28T14:41:00.874Z</time></trkpt><trkpt lat="39.71344737710365" lon="9.586601761565047"><ele>125.0</ele><time>2026-04-28T14:41:01.874Z</time></trkpt><trkpt lat="39.7132140531897" lon="9.58664913573749"><ele>125.0</ele><time>2026-04-28T14:41:02.874Z</time></trkpt><trkpt lat="39.712978831023534" lon="9.586686886451265"><ele>125.0</ele><time>2026-04-28T14:41:03.874Z</time></trkpt><trkpt lat="39.71273999401502" lon="9.58671514391916"><ele>125.0</ele><time>2026-04-28T14:41:04.874Z</time></trkpt><trkpt lat="39.71250406618943" lon="9.586726679134609"><ele>125.0</ele><time>2026-04-28T14:41:05.874Z</time></trkpt><trkpt lat="39.712277854442235" lon="9.586732058549174"><ele>125.0</ele><time>2026-04-28T14:41:06.874Z</time></trkpt><trkpt lat="39.712065899734775" lon="9.586735227103306"><ele>125.0</ele><time>2026-04-28T14:41:07.874Z</time></trkpt><trkpt lat="39.71187721161086" lon="9.586732069329967"><ele>125.0</ele><time>2026-04-28T14:41:08.874Z</time></trkpt><trkpt lat="39.71169369232532" lon="9.586724842221477"><ele>125.33333333333333</ele><time>2026-04-28T14:41:09.874Z</time></trkpt><trkpt lat="39.71151842358132" lon="9.586728047737155"><ele>125.66666666666666</ele><time>2026-04-28T14:41:10.874Z</time></trkpt><trkpt lat="39.71134666703305" lon="9.586728975848477"><ele>126.0</ele><time>2026-04-28T14:41:11.874Z</time></trkpt><trkpt lat="39.71115884033889" lon="9.586731332121335"><ele>125.33333333333334</ele><time>2026-04-28T14:41:12.874Z</time></trkpt><trkpt lat="39.71097017901956" lon="9.5867345167003"><ele>124.66666666666667</ele><time>2026-04-28T14:41:13.874Z</time></trkpt><trkpt lat="39.71077330771751" lon="9.586744164284454"><ele>124.0</ele><time>2026-04-28T14:41:14.874Z</time></trkpt><trkpt lat="39.710573896085265" lon="9.586744432922195"><ele>124.0</ele><time>2026-04-28T14:41:15.874Z</time></trkpt><trkpt lat="39.71036412317697" lon="9.586748766141957"><ele>124.0</ele><time>2026-04-28T14:41:16.874Z</time></trkpt><trkpt lat="39.71015256522064" lon="9.586756073151356"><ele>124.0</ele><time>2026-04-28T14:41:17.874Z</time></trkpt><trkpt lat="39.70993517351184" lon="9.586760808290146"><ele>123.33333333333334</ele><time>2026-04-28T14:41:18.874Z</time></trkpt><trkpt lat="39.709711496044655" lon="9.586763732428206"><ele>122.66666666666666</ele><time>2026-04-28T14:41:19.874Z</time></trkpt><trkpt lat="39.709485728985996" lon="9.586762401446663"><ele>122.0</ele><time>2026-04-28T14:41:20.874Z</time></trkpt><trkpt lat="39.709253714502985" lon="9.586764904702902"><ele>120.0</ele><time>2026-04-28T14:41:21.874Z</time></trkpt><trkpt lat="39.7090197963346" lon="9.58676908568981"><ele>118.0</ele><time>2026-04-28T14:41:22.874Z</time></trkpt><trkpt lat="39.70878235618942" lon="9.586771718597305"><ele>117.5</ele><time>2026-04-28T14:41:23.874Z</time></trkpt><trkpt lat="39.70853785463231" lon="9.586772067485875"><ele>117.0</ele><time>2026-04-28T14:41:24.874Z</time></trkpt><trkpt lat="39.70829818158933" lon="9.586778248106196"><ele>117.0</ele><time>2026-04-28T14:41:25.874Z</time></trkpt><trkpt lat="39.708061750232446" lon="9.586769555369738"><ele>117.0</ele><time>2026-04-28T14:41:26.874Z</time></trkpt><trkpt lat="39.7078123337238" lon="9.586772242817217"><ele>117.5</ele><time>2026-04-28T14:41:27.874Z</time></trkpt><trkpt lat="39.70756010022963" lon="9.586788669941072"><ele>118.0</ele><time>2026-04-28T14:41:28.874Z</time></trkpt><trkpt lat="39.70730811290322" lon="9.586787170005595"><ele>118.0</ele><time>2026-04-28T14:41:29.874Z</time></trkpt><trkpt lat="39.70706010060782" lon="9.586787165974082"><ele>118.0</ele><time>2026-04-28T14:41:30.874Z</time></trkpt><trkpt lat="39.706811701013116" lon="9.586787465203779"><ele>118.5</ele><time>2026-04-28T14:41:31.874Z</time></trkpt><trkpt lat="39.70655944453598" lon="9.586793403132804"><ele>119.0</ele><time>2026-04-28T14:41:32.874Z</time></trkpt><trkpt lat="39.70630299808002" lon="9.586805840799533"><ele>121.0</ele><time>2026-04-28T14:41:33.874Z</time></trkpt><trkpt lat="39.70605150422367" lon="9.586803621948432"><ele>123.0</ele><time>2026-04-28T14:41:34.874Z</time></trkpt><trkpt lat="39.70579586934846" lon="9.58680608051442"><ele>123.0</ele><time>2026-04-28T14:41:35.874Z</time></trkpt><trkpt lat="39.70553869178362" lon="9.586807972173863"><ele>123.0</ele><time>2026-04-28T14:41:36.874Z</time></trkpt><trkpt lat="39.70528202292633" lon="9.586817397502447"><ele>121.5</ele><time>2026-04-28T14:41:37.874Z</time></trkpt><trkpt lat="39.70502621592982" lon="9.586820842817966"><ele>120.0</ele><time>2026-04-28T14:41:38.874Z</time></trkpt><trkpt lat="39.70477090214487" lon="9.586821350880886"><ele>120.0</ele><time>2026-04-28T14:41:39.874Z</time></trkpt><trkpt lat="39.70451632181425" lon="9.586827811940445"><ele>120.0</ele><time>2026-04-28T14:41:40.874Z</time></trkpt><trkpt lat="39.70426267764328" lon="9.586830178731232"><ele>119.0</ele><time>2026-04-28T14:41:41.874Z</time></trkpt><trkpt lat="39.704013756031486" lon="9.58682498536683"><ele>118.0</ele><time>2026-04-28T14:41:42.874Z</time></trkpt><trkpt lat="39.70376408116861" lon="9.586826492638675"><ele>117.5</ele><time>2026-04-28T14:41:43.874Z</time></trkpt><trkpt lat="39.70351450188316" lon="9.586839488717304"><ele>117.0</ele><time>2026-04-28T14:41:44.874Z</time></trkpt><trkpt lat="39.70326487366716" lon="9.586839272787685"><ele>117.0</ele><time>2026-04-28T14:41:45.874Z</time></trkpt><trkpt lat="39.70302115472578" lon="9.586843814842847"><ele>117.0</ele><time>2026-04-28T14:41:46.873Z</time></trkpt><trkpt lat="39.70277521854905" lon="9.586848443791178"><ele>116.0</ele><time>2026-04-28T14:41:47.873Z</time></trkpt><trkpt lat="39.70254078288533" lon="9.586847365076583"><ele>115.0</ele><time>2026-04-28T14:41:48.873Z</time></trkpt><trkpt lat="39.702318208241856" lon="9.586839636978395"><ele>115.0</ele><time>2026-04-28T14:41:49.873Z</time></trkpt><trkpt lat="39.70209759706254" lon="9.58685025446417"><ele>115.0</ele><time>2026-04-28T14:41:50.873Z</time></trkpt><trkpt lat="39.701878734251814" lon="9.586856406038114"><ele>115.0</ele><time>2026-04-28T14:41:51.873Z</time></trkpt><trkpt lat="39.7016615906819" lon="9.586826189192124"><ele>115.66666666666667</ele><time>2026-04-28T14:41:52.873Z</time></trkpt><trkpt lat="39.70144017971816" lon="9.586838280207065"><ele>116.33333333333334</ele><time>2026-04-28T14:41:53.873Z</time></trkpt><trkpt lat="39.701218756404096" lon="9.586840467077309"><ele>117.0</ele><time>2026-04-28T14:41:54.873Z</time></trkpt><trkpt lat="39.700998386494234" lon="9.586841282677954"><ele>117.0</ele><time>2026-04-28T14:41:55.873Z</time></trkpt><trkpt lat="39.700782938321034" lon="9.586845707086077"><ele>117.0</ele><time>2026-04-28T14:41:56.873Z</time></trkpt><trkpt lat="39.700571047324885" lon="9.586849333151822"><ele>117.0</ele><time>2026-04-28T14:41:57.874Z</time></trkpt><trkpt lat="39.70035619391978" lon="9.586859992003852"><ele>118.0</ele><time>2026-04-28T14:41:58.874Z</time></trkpt><trkpt lat="39.700141424817325" lon="9.586861372592015"><ele>119.0</ele><time>2026-04-28T14:41:59.874Z</time></trkpt><trkpt lat="39.69992436981149" lon="9.586857562442631"><ele>120.0</ele><time>2026-04-28T14:42:00.874Z</time></trkpt><trkpt lat="39.699702972826614" lon="9.5868716750102"><ele>120.0</ele><time>2026-04-28T14:42:01.874Z</time></trkpt><trkpt lat="39.69950395903774" lon="9.586872665699213"><ele>120.0</ele><time>2026-04-28T14:42:02.874Z</time></trkpt><trkpt lat="39.69929883072058" lon="9.586878352635006"><ele>120.0</ele><time>2026-04-28T14:42:03.874Z</time></trkpt><trkpt lat="39.699100136844365" lon="9.586880929352755"><ele>119.66666666666666</ele><time>2026-04-28T14:42:04.874Z</time></trkpt><trkpt lat="39.69889626802677" lon="9.58688165603543"><ele>119.33333333333333</ele><time>2026-04-28T14:42:05.874Z</time></trkpt><trkpt lat="39.69869438039558" lon="9.586879984970649"><ele>119.0</ele><time>2026-04-28T14:42:06.874Z</time></trkpt><trkpt lat="39.6984922722309" lon="9.586887367974684"><ele>119.0</ele><time>2026-04-28T14:42:07.874Z</time></trkpt><trkpt lat="39.69829062383972" lon="9.58689831654456"><ele>119.0</ele><time>2026-04-28T14:42:08.874Z</time></trkpt><trkpt lat="39.69809156879213" lon="9.586900019983513"><ele>119.0</ele><time>2026-04-28T14:42:09.874Z</time></trkpt><trkpt lat="39.6978875868522" lon="9.586897458137722"><ele>119.0</ele><time>2026-04-28T14:42:10.874Z</time></trkpt><trkpt lat="39.69768176781489" lon="9.586888494225724"><ele>119.0</ele><time>2026-04-28T14:42:11.874Z</time></trkpt><trkpt lat="39.697473455625804" lon="9.586885635743554"><ele>119.0</ele><time>2026-04-28T14:42:12.874Z</time></trkpt><trkpt lat="39.69726654890139" lon="9.586898203004836"><ele>119.0</ele><time>2026-04-28T14:42:13.874Z</time></trkpt><trkpt lat="39.69705958932669" lon="9.58690552323515"><ele>119.0</ele><time>2026-04-28T14:42:14.874Z</time></trkpt><trkpt lat="39.69685522134824" lon="9.586920769281"><ele>119.0</ele><time>2026-04-28T14:42:15.874Z</time></trkpt><trkpt lat="39.696654607052785" lon="9.586933590440937"><ele>118.66666666666666</ele><time>2026-04-28T14:42:16.874Z</time></trkpt><trkpt lat="39.69645426465314" lon="9.586953790486128"><ele>118.33333333333334</ele><time>2026-04-28T14:42:17.874Z</time></trkpt><trkpt lat="39.696256804307374" lon="9.586976739753192"><ele>118.0</ele><time>2026-04-28T14:42:18.874Z</time></trkpt><trkpt lat="39.6960597037978" lon="9.587011052325936"><ele>121.0</ele><time>2026-04-28T14:42:19.874Z</time></trkpt><trkpt lat="39.695869187805606" lon="9.587037325292746"><ele>124.0</ele><time>2026-04-28T14:42:20.874Z</time></trkpt><trkpt lat="39.69568177185024" lon="9.587063992936018"><ele>127.0</ele><time>2026-04-28T14:42:21.874Z</time></trkpt><trkpt lat="39.69549722781203" lon="9.58709297885825"><ele>127.0</ele><time>2026-04-28T14:42:22.874Z</time></trkpt><trkpt lat="39.69532511377869" lon="9.587117140020046"><ele>127.0</ele><time>2026-04-28T14:42:23.874Z</time></trkpt><trkpt lat="39.69515421640162" lon="9.587137494610085"><ele>127.0</ele><time>2026-04-28T14:42:24.874Z</time></trkpt><trkpt lat="39.69497915780004" lon="9.587154635877233"><ele>124.0</ele><time>2026-04-28T14:42:25.874Z</time></trkpt><trkpt lat="39.69480814618105" lon="9.587181818082305"><ele>121.0</ele><time>2026-04-28T14:42:26.874Z</time></trkpt><trkpt lat="39.69464520226827" lon="9.587210188575307"><ele>118.0</ele><time>2026-04-28T14:42:27.874Z</time></trkpt><trkpt lat="39.694479600925696" lon="9.587231603154162"><ele>116.33333333333334</ele><time>2026-04-28T14:42:28.874Z</time></trkpt><trkpt lat="39.694314850915525" lon="9.587253894320186"><ele>114.66666666666666</ele><time>2026-04-28T14:42:29.874Z</time></trkpt><trkpt lat="39.69416021441158" lon="9.587277670954913"><ele>113.0</ele><time>2026-04-28T14:42:30.874Z</time></trkpt><trkpt lat="39.69399694715937" lon="9.587301522037276"><ele>113.0</ele><time>2026-04-28T14:42:31.874Z</time></trkpt><trkpt lat="39.69383242592178" lon="9.587323582261828"><ele>113.0</ele><time>2026-04-28T14:42:32.874Z</time></trkpt><trkpt lat="39.693673127157545" lon="9.587348753945841"><ele>113.0</ele><time>2026-04-28T14:42:33.874Z</time></trkpt><trkpt lat="39.69352560812535" lon="9.587365735334465"><ele>112.75</ele><time>2026-04-28T14:42:34.874Z</time></trkpt><trkpt lat="39.693382678422545" lon="9.587390210484905"><ele>112.5</ele><time>2026-04-28T14:42:35.874Z</time></trkpt><trkpt lat="39.693249103430816" lon="9.587410336147364"><ele>112.25</ele><time>2026-04-28T14:42:36.874Z</time></trkpt><trkpt lat="39.69312335099649" lon="9.587425965442986"><ele>112.0</ele><time>2026-04-28T14:42:37.874Z</time></trkpt><trkpt lat="39.69300703836414" lon="9.5874374854789"><ele>112.0</ele><time>2026-04-28T14:42:38.874Z</time></trkpt><trkpt lat="39.69289755440407" lon="9.587447439936618"><ele>111.99999999999999</ele><time>2026-04-28T14:42:39.874Z</time></trkpt><trkpt lat="39.69279104095774" lon="9.587453375353594"><ele>111.99999999999999</ele><time>2026-04-28T14:42:40.874Z</time></trkpt><trkpt lat="39.69268215650074" lon="9.587468402646413"><ele>112.0</ele><time>2026-04-28T14:42:41.874Z</time></trkpt><trkpt lat="39.69256577163855" lon="9.587477886469934"><ele>112.0</ele><time>2026-04-28T14:42:42.874Z</time></trkpt><trkpt lat="39.69245652892206" lon="9.587490771971206"><ele>112.19999999999999</ele><time>2026-04-28T14:42:43.874Z</time></trkpt><trkpt lat="39.692358409741374" lon="9.587502817037958"><ele>112.39999999999999</ele><time>2026-04-28T14:42:44.874Z</time></trkpt><trkpt lat="39.692262081171236" lon="9.587509544617625"><ele>112.60000000000001</ele><time>2026-04-28T14:42:45.874Z</time></trkpt><trkpt lat="39.69217788885932" lon="9.587506252416157"><ele>112.80000000000001</ele><time>2026-04-28T14:42:46.874Z</time></trkpt><trkpt lat="39.69209846706583" lon="9.587486723069116"><ele>113.0</ele><time>2026-04-28T14:42:47.874Z</time></trkpt><trkpt lat="39.69200286608612" lon="9.587472757793865"><ele>112.99999999999999</ele><time>2026-04-28T14:42:49.874Z</time></trkpt><trkpt lat="39.69195774665966" lon="9.58730332618829"><ele>113.0</ele><time>2026-04-28T14:42:50.874Z</time></trkpt><trkpt lat="39.6919395186626" lon="9.587212545662506"><ele>113.0</ele><time>2026-04-28T14:42:51.874Z</time></trkpt><trkpt lat="39.691920034817066" lon="9.587120977005885"><ele>113.0</ele><time>2026-04-28T14:42:52.874Z</time></trkpt><trkpt lat="39.69189799017073" lon="9.587034262687274"><ele>112.99999999999999</ele><time>2026-04-28T14:42:53.874Z</time></trkpt><trkpt lat="39.691863524126845" lon="9.586949267401499"><ele>113.0</ele><time>2026-04-28T14:42:54.874Z</time></trkpt><trkpt lat="39.69181653816702" lon="9.586881806875963"><ele>111.49999999999999</ele><time>2026-04-28T14:42:55.874Z</time></trkpt><trkpt lat="39.6917573862992" lon="9.586823223666187"><ele>110.0</ele><time>2026-04-28T14:42:56.874Z</time></trkpt><trkpt lat="39.691688814913775" lon="9.586777536037987"><ele>108.5</ele><time>2026-04-28T14:42:57.874Z</time></trkpt><trkpt lat="39.691615053159985" lon="9.586756153131535"><ele>107.0</ele><time>2026-04-28T14:42:58.874Z</time></trkpt><trkpt lat="39.691538194285165" lon="9.586751997248301"><ele>105.49999999999999</ele><time>2026-04-28T14:42:59.874Z</time></trkpt><trkpt lat="39.69146204234893" lon="9.586773140237684"><ele>104.0</ele><time>2026-04-28T14:43:00.874Z</time></trkpt><trkpt lat="39.6913912300171" lon="9.58681201473874"><ele>104.0</ele><time>2026-04-28T14:43:01.874Z</time></trkpt><trkpt lat="39.69132265529088" lon="9.586859509601503"><ele>104.0</ele><time>2026-04-28T14:43:02.874Z</time></trkpt><trkpt lat="39.69125647014508" lon="9.586900927723125"><ele>104.0</ele><time>2026-04-28T14:43:03.874Z</time></trkpt><trkpt lat="39.69115913606046" lon="9.586962857662767"><ele>104.0</ele><time>2026-04-28T14:43:05.874Z</time></trkpt><trkpt lat="39.69108930512925" lon="9.586986389138694"><ele>104.0</ele><time>2026-04-28T14:43:07.874Z</time></trkpt><trkpt lat="39.69107689751267" lon="9.587180086741359"><ele>104.99999999999999</ele><time>2026-04-28T14:43:09.874Z</time></trkpt><trkpt lat="39.69110154155188" lon="9.587268677875903"><ele>106.0</ele><time>2026-04-28T14:43:10.874Z</time></trkpt><trkpt lat="39.69111782132961" lon="9.58737551704768"><ele>107.0</ele><time>2026-04-28T14:43:11.874Z</time></trkpt><trkpt lat="39.691138864468286" lon="9.58749158054926"><ele>108.0</ele><time>2026-04-28T14:43:12.874Z</time></trkpt><trkpt lat="39.691159004754645" lon="9.587600902543985"><ele>108.99999999999999</ele><time>2026-04-28T14:43:13.874Z</time></trkpt><trkpt lat="39.69118048672793" lon="9.587710131411328"><ele>110.0</ele><time>2026-04-28T14:43:14.874Z</time></trkpt><trkpt lat="39.69120584419295" lon="9.587820886541074"><ele>110.4</ele><time>2026-04-28T14:43:15.874Z</time></trkpt><trkpt lat="39.69121348608526" lon="9.58793986519364"><ele>110.8</ele><time>2026-04-28T14:43:16.874Z</time></trkpt><trkpt lat="39.69123570671878" lon="9.588067530469765"><ele>111.19999999999999</ele><time>2026-04-28T14:43:17.874Z</time></trkpt><trkpt lat="39.69125695382271" lon="9.588203969143915"><ele>111.6</ele><time>2026-04-28T14:43:18.874Z</time></trkpt><trkpt lat="39.691288716097226" lon="9.588322720986366"><ele>112.0</ele><time>2026-04-28T14:43:19.874Z</time></trkpt><trkpt lat="39.691338687016426" lon="9.588436859805324"><ele>112.0</ele><time>2026-04-28T14:43:20.874Z</time></trkpt><trkpt lat="39.691407548188444" lon="9.58852899677372"><ele>111.99999999999999</ele><time>2026-04-28T14:43:21.874Z</time></trkpt><trkpt lat="39.691457813876625" lon="9.588642728285302"><ele>111.99999999999999</ele><time>2026-04-28T14:43:22.874Z</time></trkpt><trkpt lat="39.691529320502575" lon="9.588746572773053"><ele>112.0</ele><time>2026-04-28T14:43:23.874Z</time></trkpt><trkpt lat="39.69160731888243" lon="9.588855253169973"><ele>112.0</ele><time>2026-04-28T14:43:24.874Z</time></trkpt><trkpt lat="39.69168621054612" lon="9.588967183555175"><ele>112.0</ele><time>2026-04-28T14:43:25.874Z</time></trkpt><trkpt lat="39.69176891865215" lon="9.589086775291321"><ele>111.99999999999999</ele><time>2026-04-28T14:43:26.874Z</time></trkpt><trkpt lat="39.69184019876556" lon="9.589192575290383"><ele>111.99999999999999</ele><time>2026-04-28T14:43:27.875Z</time></trkpt><trkpt lat="39.69190918156074" lon="9.58929965799703"><ele>112.0</ele><time>2026-04-28T14:43:28.875Z</time></trkpt><trkpt lat="39.691987901128094" lon="9.589396626560655"><ele>112.0</ele><time>2026-04-28T14:43:29.875Z</time></trkpt><trkpt lat="39.69204849616605" lon="9.58951002496395"><ele>111.0</ele><time>2026-04-28T14:43:30.875Z</time></trkpt><trkpt lat="39.69210714252443" lon="9.589633553054808"><ele>110.0</ele><time>2026-04-28T14:43:31.875Z</time></trkpt><trkpt lat="39.6921491518401" lon="9.589768592961319"><ele>109.0</ele><time>2026-04-28T14:43:32.875Z</time></trkpt><trkpt lat="39.69217719186419" lon="9.589915001661527"><ele>108.0</ele><time>2026-04-28T14:43:33.875Z</time></trkpt><trkpt lat="39.69220121380318" lon="9.590056283399514"><ele>108.0</ele><time>2026-04-28T14:43:34.875Z</time></trkpt><trkpt lat="39.6922188161805" lon="9.590197491921533"><ele>108.00000000000001</ele><time>2026-04-28T14:43:35.875Z</time></trkpt><trkpt lat="39.692243865964755" lon="9.590342276702476"><ele>108.00000000000001</ele><time>2026-04-28T14:43:36.875Z</time></trkpt><trkpt lat="39.69223710274895" lon="9.590486921130584"><ele>108.0</ele><time>2026-04-28T14:43:37.875Z</time></trkpt><trkpt lat="39.69224570286964" lon="9.590621636279632"><ele>108.0</ele><time>2026-04-28T14:43:38.875Z</time></trkpt><trkpt lat="39.69225823589728" lon="9.59076413843747"><ele>108.25</ele><time>2026-04-28T14:43:39.875Z</time></trkpt><trkpt lat="39.692269201482745" lon="9.590910347175539"><ele>108.5</ele><time>2026-04-28T14:43:40.874Z</time></trkpt><trkpt lat="39.69228099742917" lon="9.591061788240845"><ele>108.75</ele><time>2026-04-28T14:43:41.874Z</time></trkpt><trkpt lat="39.69229667130095" lon="9.591216063904433"><ele>109.0</ele><time>2026-04-28T14:43:42.874Z</time></trkpt><trkpt lat="39.69231731407913" lon="9.591369677327346"><ele>109.0</ele><time>2026-04-28T14:43:43.874Z</time></trkpt><trkpt lat="39.6923336009721" lon="9.591527704873288"><ele>109.0</ele><time>2026-04-28T14:43:44.875Z</time></trkpt><trkpt lat="39.692326070945356" lon="9.591691814160642"><ele>109.0</ele><time>2026-04-28T14:43:45.875Z</time></trkpt><trkpt lat="39.69232135644331" lon="9.591861241663578"><ele>109.0</ele><time>2026-04-28T14:43:46.874Z</time></trkpt><trkpt lat="39.69231416071394" lon="9.592052253015659"><ele>108.75</ele><time>2026-04-28T14:43:47.874Z</time></trkpt><trkpt lat="39.69230659958651" lon="9.592243604203917"><ele>108.5</ele><time>2026-04-28T14:43:48.874Z</time></trkpt><trkpt lat="39.692298713308865" lon="9.592433203028618"><ele>108.25</ele><time>2026-04-28T14:43:49.875Z</time></trkpt><trkpt lat="39.692287913838584" lon="9.592625301474113"><ele>108.0</ele><time>2026-04-28T14:43:50.874Z</time></trkpt><trkpt lat="39.69227522192225" lon="9.592820850220777"><ele>108.25</ele><time>2026-04-28T14:43:51.874Z</time></trkpt><trkpt lat="39.692270789984704" lon="9.593003717920489"><ele>108.5</ele><time>2026-04-28T14:43:52.874Z</time></trkpt><trkpt lat="39.69226872142727" lon="9.593196969179195"><ele>108.75</ele><time>2026-04-28T14:43:53.874Z</time></trkpt><trkpt lat="39.69226827409346" lon="9.593402202829477"><ele>109.0</ele><time>2026-04-28T14:43:54.874Z</time></trkpt><trkpt lat="39.69226896002794" lon="9.593611813536866"><ele>109.33333333333334</ele><time>2026-04-28T14:43:55.874Z</time></trkpt><trkpt lat="39.69227095657373" lon="9.593818352536392"><ele>109.66666666666666</ele><time>2026-04-28T14:43:56.874Z</time></trkpt><trkpt lat="39.692276158026786" lon="9.594025237464425"><ele>110.0</ele><time>2026-04-28T14:43:57.874Z</time></trkpt><trkpt lat="39.69228707052667" lon="9.594237540412614"><ele>110.0</ele><time>2026-04-28T14:43:58.874Z</time></trkpt><trkpt lat="39.69232184643932" lon="9.594441078912768"><ele>110.0</ele><time>2026-04-28T14:43:59.875Z</time></trkpt><trkpt lat="39.69234631981034" lon="9.594652660061039"><ele>110.0</ele><time>2026-04-28T14:44:00.875Z</time></trkpt><trkpt lat="39.692370833165896" lon="9.594861482602813"><ele>109.66666666666666</ele><time>2026-04-28T14:44:01.875Z</time></trkpt><trkpt lat="39.69239340501906" lon="9.595061407650636"><ele>109.33333333333334</ele><time>2026-04-28T14:44:02.875Z</time></trkpt><trkpt lat="39.69240320507844" lon="9.595254760420492"><ele>109.0</ele><time>2026-04-28T14:44:03.875Z</time></trkpt><trkpt lat="39.69243222254941" lon="9.595447553255239"><ele>109.0</ele><time>2026-04-28T14:44:04.875Z</time></trkpt><trkpt lat="39.69246421946178" lon="9.595625248849203"><ele>109.0</ele><time>2026-04-28T14:44:05.875Z</time></trkpt><trkpt lat="39.692499102171844" lon="9.595798080158168"><ele>109.0</ele><time>2026-04-28T14:44:06.875Z</time></trkpt><trkpt lat="39.692548894243" lon="9.59597471601648"><ele>109.0</ele><time>2026-04-28T14:44:07.875Z</time></trkpt><trkpt lat="39.69261706090127" lon="9.59614312166911"><ele>109.33333333333334</ele><time>2026-04-28T14:44:08.875Z</time></trkpt><trkpt lat="39.69269542962927" lon="9.596304167127625"><ele>109.66666666666666</ele><time>2026-04-28T14:44:09.875Z</time></trkpt><trkpt lat="39.69278464433687" lon="9.596480789548004"><ele>110.0</ele><time>2026-04-28T14:44:10.875Z</time></trkpt><trkpt lat="39.69287367290949" lon="9.596656423100658"><ele>112.33333333333333</ele><time>2026-04-28T14:44:11.875Z</time></trkpt><trkpt lat="39.692955167662774" lon="9.596826988558233"><ele>114.66666666666666</ele><time>2026-04-28T14:44:12.875Z</time></trkpt><trkpt lat="39.6930328631856" lon="9.59700471408224"><ele>117.0</ele><time>2026-04-28T14:44:13.875Z</time></trkpt><trkpt lat="39.69309997636659" lon="9.597203681172406"><ele>118.0</ele><time>2026-04-28T14:44:14.875Z</time></trkpt><trkpt lat="39.69315240053733" lon="9.597408343429057"><ele>119.0</ele><time>2026-04-28T14:44:15.875Z</time></trkpt><trkpt lat="39.69318910216439" lon="9.597609714646307"><ele>120.0</ele><time>2026-04-28T14:44:16.875Z</time></trkpt><trkpt lat="39.693230902322924" lon="9.597786753535118"><ele>120.0</ele><time>2026-04-28T14:44:17.875Z</time></trkpt><trkpt lat="39.693255892964935" lon="9.597959219502817"><ele>120.0</ele><time>2026-04-28T14:44:18.875Z</time></trkpt><trkpt lat="39.69326098253894" lon="9.598134590398761"><ele>120.0</ele><time>2026-04-28T14:44:19.875Z</time></trkpt><trkpt lat="39.69324697943324" lon="9.598320678633346"><ele>120.0</ele><time>2026-04-28T14:44:20.875Z</time></trkpt><trkpt lat="39.693213359630946" lon="9.598507148576658"><ele>119.66666666666666</ele><time>2026-04-28T14:44:21.875Z</time></trkpt><trkpt lat="39.69316091245496" lon="9.598688018919642"><ele>119.33333333333333</ele><time>2026-04-28T14:44:22.875Z</time></trkpt><trkpt lat="39.693092806456285" lon="9.598869940482741"><ele>119.0</ele><time>2026-04-28T14:44:23.875Z</time></trkpt><trkpt lat="39.693014584180084" lon="9.599047070498417"><ele>119.0</ele><time>2026-04-28T14:44:24.875Z</time></trkpt><trkpt lat="39.69293670187666" lon="9.599205790289126"><ele>119.0</ele><time>2026-04-28T14:44:25.875Z</time></trkpt><trkpt lat="39.69286437935017" lon="9.599356488034912"><ele>119.0</ele><time>2026-04-28T14:44:26.875Z</time></trkpt><trkpt lat="39.69279451190956" lon="9.599498269330162"><ele>119.0</ele><time>2026-04-28T14:44:27.875Z</time></trkpt><trkpt lat="39.69272802018031" lon="9.599641349337805"><ele>117.5</ele><time>2026-04-28T14:44:28.875Z</time></trkpt><trkpt lat="39.69265987646215" lon="9.59978034043018"><ele>116.0</ele><time>2026-04-28T14:44:29.877Z</time></trkpt><trkpt lat="39.69259382207618" lon="9.599902511569889"><ele>114.5</ele><time>2026-04-28T14:44:30.879Z</time></trkpt><trkpt lat="39.69253438881462" lon="9.600023702279094"><ele>113.0</ele><time>2026-04-28T14:44:31.88Z</time></trkpt><trkpt lat="39.692474709826094" lon="9.600151110813835"><ele>113.0</ele><time>2026-04-28T14:44:32.882Z</time></trkpt><trkpt lat="39.69243105686171" lon="9.600280733089082"><ele>113.0</ele><time>2026-04-28T14:44:33.884Z</time></trkpt><trkpt lat="39.692420666404225" lon="9.600439767701697"><ele>113.0</ele><time>2026-04-28T14:44:34.885Z</time></trkpt><trkpt lat="39.69241316914249" lon="9.600608978555968"><ele>113.0</ele><time>2026-04-28T14:44:35.887Z</time></trkpt><trkpt lat="39.6924221262447" lon="9.60077307165692"><ele>113.75</ele><time>2026-04-28T14:44:36.888Z</time></trkpt><trkpt lat="39.69243715818953" lon="9.600939174327385"><ele>114.5</ele><time>2026-04-28T14:44:37.889Z</time></trkpt><trkpt lat="39.69246771103818" lon="9.601103252838548"><ele>115.25</ele><time>2026-04-28T14:44:38.89Z</time></trkpt><trkpt lat="39.69250959513212" lon="9.601260412768681"><ele>116.0</ele><time>2026-04-28T14:44:39.891Z</time></trkpt><trkpt lat="39.692561955254334" lon="9.601402956542671"><ele>116.25</ele><time>2026-04-28T14:44:40.892Z</time></trkpt><trkpt lat="39.692628963602566" lon="9.601539513309632"><ele>116.5</ele><time>2026-04-28T14:44:41.893Z</time></trkpt><trkpt lat="39.69270368563299" lon="9.60166939415671"><ele>116.75</ele><time>2026-04-28T14:44:42.894Z</time></trkpt><trkpt lat="39.69279038337318" lon="9.601807642485033"><ele>117.0</ele><time>2026-04-28T14:44:43.895Z</time></trkpt><trkpt lat="39.69288781247922" lon="9.601955511322851"><ele>118.33333333333334</ele><time>2026-04-28T14:44:44.896Z</time></trkpt><trkpt lat="39.69298348191844" lon="9.602109631736639"><ele>119.66666666666667</ele><time>2026-04-28T14:44:45.897Z</time></trkpt><trkpt lat="39.69307860532321" lon="9.602267585923466"><ele>121.0</ele><time>2026-04-28T14:44:46.897Z</time></trkpt><trkpt lat="39.693173907233735" lon="9.60242211841089"><ele>121.0</ele><time>2026-04-28T14:44:47.898Z</time></trkpt><trkpt lat="39.693266475343925" lon="9.602569930472436"><ele>121.0</ele><time>2026-04-28T14:44:48.899Z</time></trkpt><trkpt lat="39.69335860916762" lon="9.60271379016019"><ele>121.0</ele><time>2026-04-28T14:44:49.899Z</time></trkpt><trkpt lat="39.69344666701451" lon="9.602850515588118"><ele>121.0</ele><time>2026-04-28T14:44:50.9Z</time></trkpt><trkpt lat="39.693524992994874" lon="9.602975889371152"><ele>120.8</ele><time>2026-04-28T14:44:51.9Z</time></trkpt><trkpt lat="39.693587065571734" lon="9.603101362527505"><ele>120.6</ele><time>2026-04-28T14:44:52.901Z</time></trkpt><trkpt lat="39.6936285380152" lon="9.603228256981668"><ele>120.4</ele><time>2026-04-28T14:44:53.901Z</time></trkpt><trkpt lat="39.693640505793645" lon="9.603356160005504"><ele>120.2</ele><time>2026-04-28T14:44:54.902Z</time></trkpt><trkpt lat="39.69362456571499" lon="9.603489327284013"><ele>120.0</ele><time>2026-04-28T14:44:55.902Z</time></trkpt><trkpt lat="39.6936014312626" lon="9.603647143343379"><ele>121.0</ele><time>2026-04-28T14:44:56.902Z</time></trkpt><trkpt lat="39.693570342216134" lon="9.603799343522384"><ele>122.0</ele><time>2026-04-28T14:44:57.903Z</time></trkpt><trkpt lat="39.69353810190985" lon="9.603946703426152"><ele>123.0</ele><time>2026-04-28T14:44:58.903Z</time></trkpt><trkpt lat="39.69349933777527" lon="9.604097235049792"><ele>124.0</ele><time>2026-04-28T14:44:59.903Z</time></trkpt><trkpt lat="39.6934629190994" lon="9.60426032904194"><ele>124.0</ele><time>2026-04-28T14:45:00.904Z</time></trkpt><trkpt lat="39.69342144304248" lon="9.604427453849313"><ele>124.0</ele><time>2026-04-28T14:45:01.904Z</time></trkpt><trkpt lat="39.69337870657469" lon="9.604593538909159"><ele>124.0</ele><time>2026-04-28T14:45:02.904Z</time></trkpt><trkpt lat="39.693341673354574" lon="9.6047508318477"><ele>124.0</ele><time>2026-04-28T14:45:03.904Z</time></trkpt><trkpt lat="39.69331693410476" lon="9.604904564536824"><ele>124.5</ele><time>2026-04-28T14:45:04.905Z</time></trkpt><trkpt lat="39.69331491011533" lon="9.605064287435754"><ele>125.0</ele><time>2026-04-28T14:45:05.905Z</time></trkpt><trkpt lat="39.693336176379795" lon="9.605224104344662"><ele>125.5</ele><time>2026-04-28T14:45:06.905Z</time></trkpt><trkpt lat="39.693375879597404" lon="9.605376468829837"><ele>126.0</ele><time>2026-04-28T14:45:07.905Z</time></trkpt><trkpt lat="39.69343872349132" lon="9.60552240552727"><ele>126.75</ele><time>2026-04-28T14:45:08.905Z</time></trkpt><trkpt lat="39.6935261971907" lon="9.605669231326484"><ele>127.5</ele><time>2026-04-28T14:45:09.906Z</time></trkpt><trkpt lat="39.693619918776065" lon="9.605819806244975"><ele>128.25</ele><time>2026-04-28T14:45:10.906Z</time></trkpt><trkpt lat="39.69371888788245" lon="9.60596924550662"><ele>129.0</ele><time>2026-04-28T14:45:11.906Z</time></trkpt><trkpt lat="39.6938131225869" lon="9.606132857298103"><ele>129.0</ele><time>2026-04-28T14:45:12.906Z</time></trkpt><trkpt lat="39.6939029923707" lon="9.606285499409424"><ele>129.0</ele><time>2026-04-28T14:45:13.906Z</time></trkpt><trkpt lat="39.69398033151759" lon="9.606419955551074"><ele>129.0</ele><time>2026-04-28T14:45:14.906Z</time></trkpt><trkpt lat="39.69404191329435" lon="9.606556804212918"><ele>129.0</ele><time>2026-04-28T14:45:15.906Z</time></trkpt><trkpt lat="39.69407921584235" lon="9.606699697617938"><ele>129.0</ele><time>2026-04-28T14:45:16.906Z</time></trkpt><trkpt lat="39.69409049156357" lon="9.606864997433824"><ele>129.0</ele><time>2026-04-28T14:45:17.907Z</time></trkpt><trkpt lat="39.69408670345301" lon="9.607036457072812"><ele>129.0</ele><time>2026-04-28T14:45:18.907Z</time></trkpt><trkpt lat="39.69407662166273" lon="9.607230160742432"><ele>129.0</ele><time>2026-04-28T14:45:19.907Z</time></trkpt><trkpt lat="39.69404710921776" lon="9.607431358732256"><ele>129.5</ele><time>2026-04-28T14:45:20.907Z</time></trkpt><trkpt lat="39.694020747623796" lon="9.607634710643705"><ele>130.0</ele><time>2026-04-28T14:45:21.907Z</time></trkpt><trkpt lat="39.693999336480054" lon="9.607841838185761"><ele>130.5</ele><time>2026-04-28T14:45:22.907Z</time></trkpt><trkpt lat="39.6939805761293" lon="9.60798393360442"><ele>131.0</ele><time>2026-04-28T14:45:23.907Z</time></trkpt><trkpt lat="39.69396070943043" lon="9.608184858873424"><ele>131.75</ele><time>2026-04-28T14:45:24.907Z</time></trkpt><trkpt lat="39.69394205015724" lon="9.608374284747443"><ele>132.5</ele><time>2026-04-28T14:45:25.907Z</time></trkpt><trkpt lat="39.69393176810591" lon="9.60854181364118"><ele>133.25</ele><time>2026-04-28T14:45:26.907Z</time></trkpt><trkpt lat="39.69393977385976" lon="9.608690882474344"><ele>134.0</ele><time>2026-04-28T14:45:27.907Z</time></trkpt><trkpt lat="39.693969524738364" lon="9.608822677317827"><ele>135.0</ele><time>2026-04-28T14:45:28.907Z</time></trkpt><trkpt lat="39.694021044842955" lon="9.608930573347365"><ele>136.0</ele><time>2026-04-28T14:45:29.908Z</time></trkpt><trkpt lat="39.69410725058859" lon="9.608998931944102"><ele>137.0</ele><time>2026-04-28T14:45:30.908Z</time></trkpt><trkpt lat="39.694193510792225" lon="9.609065896868776"><ele>138.0</ele><time>2026-04-28T14:45:31.908Z</time></trkpt><trkpt lat="39.69429804465553" lon="9.609120110024724"><ele>139.0</ele><time>2026-04-28T14:45:32.908Z</time></trkpt><trkpt lat="39.69442108159238" lon="9.609165578730666"><ele>139.75</ele><time>2026-04-28T14:45:33.908Z</time></trkpt><trkpt lat="39.6945577120186" lon="9.609217144611325"><ele>140.5</ele><time>2026-04-28T14:45:34.908Z</time></trkpt><trkpt lat="39.69469251424353" lon="9.609266453426196"><ele>141.25</ele><time>2026-04-28T14:45:35.908Z</time></trkpt><trkpt lat="39.69482943062052" lon="9.609290280343773"><ele>142.0</ele><time>2026-04-28T14:45:36.908Z</time></trkpt><trkpt lat="39.69497010328733" lon="9.609264674919439"><ele>142.0</ele><time>2026-04-28T14:45:37.908Z</time></trkpt><trkpt lat="39.695110581581666" lon="9.60921381746087"><ele>142.0</ele><time>2026-04-28T14:45:38.908Z</time></trkpt><trkpt lat="39.69524644273809" lon="9.609129009347058"><ele>142.0</ele><time>2026-04-28T14:45:39.908Z</time></trkpt><trkpt lat="39.695398125497086" lon="9.60904652528364"><ele>143.25</ele><time>2026-04-28T14:45:40.908Z</time></trkpt><trkpt lat="39.69554430253547" lon="9.608974680019417"><ele>144.5</ele><time>2026-04-28T14:45:41.908Z</time></trkpt><trkpt lat="39.69567581032513" lon="9.608908240988377"><ele>145.75</ele><time>2026-04-28T14:45:42.908Z</time></trkpt><trkpt lat="39.69579071747944" lon="9.60885580884507"><ele>147.0</ele><time>2026-04-28T14:45:43.908Z</time></trkpt><trkpt lat="39.69589348014521" lon="9.608831706187528"><ele>147.0</ele><time>2026-04-28T14:45:44.908Z</time></trkpt><trkpt lat="39.69599979689672" lon="9.60885326047598"><ele>147.0</ele><time>2026-04-28T14:45:45.908Z</time></trkpt><trkpt lat="39.696092670570806" lon="9.608952959369427"><ele>147.0</ele><time>2026-04-28T14:45:46.908Z</time></trkpt><trkpt lat="39.69618101969227" lon="9.609042361898146"><ele>147.0</ele><time>2026-04-28T14:45:47.908Z</time></trkpt><trkpt lat="39.696256261406056" lon="9.609162442167792"><ele>146.0</ele><time>2026-04-28T14:45:48.908Z</time></trkpt><trkpt lat="39.69629250644252" lon="9.609303503770423"><ele>145.0</ele><time>2026-04-28T14:45:49.908Z</time></trkpt><trkpt lat="39.69632470656351" lon="9.609443535749215"><ele>144.0</ele><time>2026-04-28T14:45:50.907Z</time></trkpt><trkpt lat="39.69636443185424" lon="9.609611744786813"><ele>143.0</ele><time>2026-04-28T14:45:51.907Z</time></trkpt><trkpt lat="39.69640415996132" lon="9.609789214412974"><ele>143.0</ele><time>2026-04-28T14:45:52.908Z</time></trkpt><trkpt lat="39.6964373420359" lon="9.609973891814374"><ele>143.0</ele><time>2026-04-28T14:45:53.907Z</time></trkpt><trkpt lat="39.69648063286676" lon="9.610163868386497"><ele>143.0</ele><time>2026-04-28T14:45:54.907Z</time></trkpt><trkpt lat="39.69652511468851" lon="9.610354643758152"><ele>148.33333333333331</ele><time>2026-04-28T14:45:55.908Z</time></trkpt><trkpt lat="39.69658364182825" lon="9.610553153546086"><ele>153.66666666666666</ele><time>2026-04-28T14:45:56.907Z</time></trkpt><trkpt lat="39.69665079255329" lon="9.610735936765465"><ele>159.0</ele><time>2026-04-28T14:45:57.907Z</time></trkpt><trkpt lat="39.6967052487152" lon="9.610892119919383"><ele>159.0</ele><time>2026-04-28T14:45:58.908Z</time></trkpt><trkpt lat="39.696758109278456" lon="9.611001025738876"><ele>159.0</ele><time>2026-04-28T14:45:59.908Z</time></trkpt><trkpt lat="39.69681758123703" lon="9.611079986495048"><ele>159.0</ele><time>2026-04-28T14:46:00.908Z</time></trkpt><trkpt lat="39.696907730121104" lon="9.611136110907527"><ele>159.0</ele><time>2026-04-28T14:46:01.908Z</time></trkpt><trkpt lat="39.69702460279337" lon="9.611176340029774"><ele>159.0</ele><time>2026-04-28T14:46:02.908Z</time></trkpt><trkpt lat="39.69714016870205" lon="9.611185533657968"><ele>156.5</ele><time>2026-04-28T14:46:03.908Z</time></trkpt><trkpt lat="39.69727495875781" lon="9.611158541304647"><ele>154.0</ele><time>2026-04-28T14:46:04.908Z</time></trkpt><trkpt lat="39.697411551996005" lon="9.611130509297013"><ele>151.5</ele><time>2026-04-28T14:46:05.908Z</time></trkpt><trkpt lat="39.69755651887469" lon="9.611073758568399"><ele>149.0</ele><time>2026-04-28T14:46:06.908Z</time></trkpt><trkpt lat="39.69769743274899" lon="9.611000818874409"><ele>150.0</ele><time>2026-04-28T14:46:07.908Z</time></trkpt><trkpt lat="39.69783012793456" lon="9.610942702737093"><ele>151.0</ele><time>2026-04-28T14:46:08.908Z</time></trkpt><trkpt lat="39.69794757601962" lon="9.610885598257088"><ele>152.0</ele><time>2026-04-28T14:46:09.908Z</time></trkpt><trkpt lat="39.698061854251335" lon="9.61086030306446"><ele>153.0</ele><time>2026-04-28T14:46:10.908Z</time></trkpt><trkpt lat="39.69816328337722" lon="9.610868292464678"><ele>153.0</ele><time>2026-04-28T14:46:11.908Z</time></trkpt><trkpt lat="39.698272499892234" lon="9.61089238017049"><ele>153.0</ele><time>2026-04-28T14:46:12.908Z</time></trkpt><trkpt lat="39.698391943911716" lon="9.610957094238097"><ele>153.0</ele><time>2026-04-28T14:46:13.908Z</time></trkpt><trkpt lat="39.698520914047066" lon="9.611029712317668"><ele>153.0</ele><time>2026-04-28T14:46:14.908Z</time></trkpt><trkpt lat="39.69865848539662" lon="9.61111441904106"><ele>154.0</ele><time>2026-04-28T14:46:15.908Z</time></trkpt><trkpt lat="39.69881971203122" lon="9.611199061952508"><ele>155.0</ele><time>2026-04-28T14:46:16.908Z</time></trkpt><trkpt lat="39.69898257004581" lon="9.611286906490456"><ele>156.0</ele><time>2026-04-28T14:46:17.908Z</time></trkpt><trkpt lat="39.69913694076" lon="9.611359225260923"><ele>156.0</ele><time>2026-04-28T14:46:18.908Z</time></trkpt><trkpt lat="39.699298212399846" lon="9.611438921411613"><ele>156.0</ele><time>2026-04-28T14:46:19.908Z</time></trkpt><trkpt lat="39.699463966977255" lon="9.61151518823077"><ele>156.0</ele><time>2026-04-28T14:46:20.908Z</time></trkpt><trkpt lat="39.69962602794663" lon="9.611596914592536"><ele>155.0</ele><time>2026-04-28T14:46:21.908Z</time></trkpt><trkpt lat="39.6997802406361" lon="9.611679191546093"><ele>154.0</ele><time>2026-04-28T14:46:22.908Z</time></trkpt><trkpt lat="39.69993101106621" lon="9.611758832239259"><ele>153.0</ele><time>2026-04-28T14:46:23.908Z</time></trkpt><trkpt lat="39.700078715729916" lon="9.611836777074576"><ele>153.0</ele><time>2026-04-28T14:46:24.908Z</time></trkpt><trkpt lat="39.7002231965147" lon="9.61191445764449"><ele>153.0</ele><time>2026-04-28T14:46:25.908Z</time></trkpt><trkpt lat="39.70035831299249" lon="9.611986012280166"><ele>153.0</ele><time>2026-04-28T14:46:26.908Z</time></trkpt><trkpt lat="39.70047285631041" lon="9.612050229511615"><ele>153.0</ele><time>2026-04-28T14:46:27.908Z</time></trkpt><trkpt lat="39.70055880507834" lon="9.612106667110417"><ele>153.8</ele><time>2026-04-28T14:46:28.908Z</time></trkpt><trkpt lat="39.7006297580635" lon="9.612182263158667"><ele>154.60000000000002</ele><time>2026-04-28T14:46:29.908Z</time></trkpt><trkpt lat="39.70067087132324" lon="9.612289382579887"><ele>155.39999999999998</ele><time>2026-04-28T14:46:30.908Z</time></trkpt><trkpt lat="39.700697782814565" lon="9.612405265687496"><ele>156.2</ele><time>2026-04-28T14:46:31.908Z</time></trkpt><trkpt lat="39.7007074764597" lon="9.612556018481609"><ele>157.0</ele><time>2026-04-28T14:46:32.908Z</time></trkpt><trkpt lat="39.70071208910619" lon="9.612718494903584"><ele>159.25</ele><time>2026-04-28T14:46:33.908Z</time></trkpt><trkpt lat="39.70071287382761" lon="9.612887590895372"><ele>161.5</ele><time>2026-04-28T14:46:34.908Z</time></trkpt><trkpt lat="39.700723188940266" lon="9.613056575554708"><ele>163.75</ele><time>2026-04-28T14:46:35.908Z</time></trkpt><trkpt lat="39.70074837443097" lon="9.613220934975898"><ele>166.0</ele><time>2026-04-28T14:46:36.908Z</time></trkpt><trkpt lat="39.700785126397356" lon="9.61335602607749"><ele>166.0</ele><time>2026-04-28T14:46:37.908Z</time></trkpt><trkpt lat="39.700850676012465" lon="9.61349725453129"><ele>166.0</ele><time>2026-04-28T14:46:38.908Z</time></trkpt><trkpt lat="39.700932841766246" lon="9.613627078539858"><ele>166.0</ele><time>2026-04-28T14:46:39.908Z</time></trkpt><trkpt lat="39.70102254520758" lon="9.613755256197416"><ele>166.0</ele><time>2026-04-28T14:46:40.908Z</time></trkpt><trkpt lat="39.701114852728715" lon="9.613872853695934"><ele>166.0</ele><time>2026-04-28T14:46:41.908Z</time></trkpt><trkpt lat="39.701236373337856" lon="9.613970647397775"><ele>166.0</ele><time>2026-04-28T14:46:42.908Z</time></trkpt><trkpt lat="39.701366332800944" lon="9.614048543703596"><ele>166.0</ele><time>2026-04-28T14:46:43.908Z</time></trkpt><trkpt lat="39.70151062975849" lon="9.614119347291496"><ele>166.0</ele><time>2026-04-28T14:46:44.908Z</time></trkpt><trkpt lat="39.70166128223703" lon="9.61420250037"><ele>166.0</ele><time>2026-04-28T14:46:45.908Z</time></trkpt><trkpt lat="39.701825779918515" lon="9.6142980965546"><ele>166.0</ele><time>2026-04-28T14:46:46.909Z</time></trkpt><trkpt lat="39.701982180923345" lon="9.614392076857854"><ele>166.0</ele><time>2026-04-28T14:46:47.909Z</time></trkpt><trkpt lat="39.70215337998046" lon="9.614489550603594"><ele>167.66666666666669</ele><time>2026-04-28T14:46:48.909Z</time></trkpt><trkpt lat="39.702345836811645" lon="9.614597836679211"><ele>169.33333333333334</ele><time>2026-04-28T14:46:49.909Z</time></trkpt><trkpt lat="39.702550875589154" lon="9.61471379919509"><ele>171.0</ele><time>2026-04-28T14:46:50.909Z</time></trkpt><trkpt lat="39.702772588154154" lon="9.614849269481969"><ele>171.0</ele><time>2026-04-28T14:46:51.909Z</time></trkpt><trkpt lat="39.70298806827897" lon="9.614973531964537"><ele>171.0</ele><time>2026-04-28T14:46:52.909Z</time></trkpt><trkpt lat="39.7031815524166" lon="9.615096372880531"><ele>171.0</ele><time>2026-04-28T14:46:53.909Z</time></trkpt><trkpt lat="39.70335811046734" lon="9.615201791937395"><ele>171.0</ele><time>2026-04-28T14:46:54.909Z</time></trkpt><trkpt lat="39.70352369004998" lon="9.61529523785727"><ele>171.0</ele><time>2026-04-28T14:46:55.909Z</time></trkpt><trkpt lat="39.703675858218006" lon="9.615370009221708"><ele>177.75</ele><time>2026-04-28T14:46:56.909Z</time></trkpt><trkpt lat="39.70382354442552" lon="9.615422360466907"><ele>184.5</ele><time>2026-04-28T14:46:57.909Z</time></trkpt><trkpt lat="39.703968221931675" lon="9.615441884548677"><ele>191.25</ele><time>2026-04-28T14:46:58.909Z</time></trkpt><trkpt lat="39.70411818459389" lon="9.615442904728294"><ele>198.0</ele><time>2026-04-28T14:46:59.909Z</time></trkpt><trkpt lat="39.704284513411814" lon="9.615429433719113"><ele>200.0</ele><time>2026-04-28T14:47:00.909Z</time></trkpt><trkpt lat="39.70444977152464" lon="9.61541220822896"><ele>202.0</ele><time>2026-04-28T14:47:01.909Z</time></trkpt><trkpt lat="39.704619346679316" lon="9.6153976641489"><ele>204.0</ele><time>2026-04-28T14:47:02.909Z</time></trkpt><trkpt lat="39.70479236563251" lon="9.615388928287835"><ele>204.0</ele><time>2026-04-28T14:47:03.909Z</time></trkpt><trkpt lat="39.70495984063147" lon="9.6153753736049"><ele>204.0</ele><time>2026-04-28T14:47:04.909Z</time></trkpt><trkpt lat="39.70510342770181" lon="9.615365516130788"><ele>204.0</ele><time>2026-04-28T14:47:05.909Z</time></trkpt><trkpt lat="39.705225551269635" lon="9.615352850486614"><ele>204.0</ele><time>2026-04-28T14:47:06.909Z</time></trkpt><trkpt lat="39.70532056109726" lon="9.61535331890977"><ele>200.6</ele><time>2026-04-28T14:47:07.909Z</time></trkpt><trkpt lat="39.70539345799991" lon="9.615383100465895"><ele>197.2</ele><time>2026-04-28T14:47:08.909Z</time></trkpt><trkpt lat="39.705457753834246" lon="9.615462974707865"><ele>193.79999999999998</ele><time>2026-04-28T14:47:09.909Z</time></trkpt><trkpt lat="39.70551145119052" lon="9.615570959766405"><ele>190.39999999999998</ele><time>2026-04-28T14:47:10.909Z</time></trkpt><trkpt lat="39.705552023033796" lon="9.615700667775965"><ele>187.0</ele><time>2026-04-28T14:47:11.909Z</time></trkpt><trkpt lat="39.70558594107682" lon="9.61585184035194"><ele>187.0</ele><time>2026-04-28T14:47:12.909Z</time></trkpt><trkpt lat="39.70562866281047" lon="9.616030560131286"><ele>187.0</ele><time>2026-04-28T14:47:13.909Z</time></trkpt><trkpt lat="39.70568248871348" lon="9.616217907794333"><ele>187.0</ele><time>2026-04-28T14:47:14.909Z</time></trkpt><trkpt lat="39.70575214710337" lon="9.616435189023198"><ele>191.0</ele><time>2026-04-28T14:47:15.909Z</time></trkpt><trkpt lat="39.705824028258306" lon="9.616657084497644"><ele>195.0</ele><time>2026-04-28T14:47:16.909Z</time></trkpt><trkpt lat="39.70589489875644" lon="9.616891211346081"><ele>199.0</ele><time>2026-04-28T14:47:17.909Z</time></trkpt><trkpt lat="39.705967612478865" lon="9.617138807407178"><ele>199.0</ele><time>2026-04-28T14:47:18.909Z</time></trkpt><trkpt lat="39.70603781579592" lon="9.617382446431865"><ele>199.0</ele><time>2026-04-28T14:47:19.909Z</time></trkpt><trkpt lat="39.70609985841159" lon="9.617590422441328"><ele>199.0</ele><time>2026-04-28T14:47:20.909Z</time></trkpt><trkpt lat="39.70616140302718" lon="9.617770243103513"><ele>202.5</ele><time>2026-04-28T14:47:21.909Z</time></trkpt><trkpt lat="39.7062292505004" lon="9.617917588351576"><ele>206.0</ele><time>2026-04-28T14:47:22.909Z</time></trkpt><trkpt lat="39.70630926700334" lon="9.618055789135301"><ele>209.5</ele><time>2026-04-28T14:47:23.909Z</time></trkpt><trkpt lat="39.70641179973804" lon="9.618192583272029"><ele>213.0</ele><time>2026-04-28T14:47:24.909Z</time></trkpt><trkpt lat="39.70650661605703" lon="9.618331384947728"><ele>213.0</ele><time>2026-04-28T14:47:25.909Z</time></trkpt><trkpt lat="39.706592669316244" lon="9.618480619807855"><ele>213.0</ele><time>2026-04-28T14:47:26.909Z</time></trkpt><trkpt lat="39.70665467692773" lon="9.618626038629465"><ele>213.0</ele><time>2026-04-28T14:47:27.909Z</time></trkpt><trkpt lat="39.70667934910927" lon="9.61880436987509"><ele>213.0</ele><time>2026-04-28T14:47:28.909Z</time></trkpt><trkpt lat="39.70670356393753" lon="9.618992208006308"><ele>215.0</ele><time>2026-04-28T14:47:29.909Z</time></trkpt><trkpt lat="39.70674447474642" lon="9.619180685690887"><ele>217.0</ele><time>2026-04-28T14:47:30.909Z</time></trkpt><trkpt lat="39.70677578963641" lon="9.619357344303607"><ele>219.0</ele><time>2026-04-28T14:47:31.909Z</time></trkpt><trkpt lat="39.70682764363511" lon="9.619516315751316"><ele>221.0</ele><time>2026-04-28T14:47:32.909Z</time></trkpt><trkpt lat="39.70689756371584" lon="9.619667785442095"><ele>222.33333333333334</ele><time>2026-04-28T14:47:33.909Z</time></trkpt><trkpt lat="39.70699010526848" lon="9.619818934570791"><ele>223.66666666666669</ele><time>2026-04-28T14:47:34.909Z</time></trkpt><trkpt lat="39.70709780725697" lon="9.619964477006894"><ele>225.0</ele><time>2026-04-28T14:47:35.909Z</time></trkpt><trkpt lat="39.70721074971061" lon="9.620106063833983"><ele>225.0</ele><time>2026-04-28T14:47:36.909Z</time></trkpt><trkpt lat="39.70732725940574" lon="9.620249635006987"><ele>225.0</ele><time>2026-04-28T14:47:37.909Z</time></trkpt><trkpt lat="39.70743733125811" lon="9.620402482772933"><ele>225.0</ele><time>2026-04-28T14:47:38.909Z</time></trkpt><trkpt lat="39.70754592903864" lon="9.620548940323875"><ele>226.0</ele><time>2026-04-28T14:47:39.909Z</time></trkpt><trkpt lat="39.7076527678137" lon="9.620689646951227"><ele>227.0</ele><time>2026-04-28T14:47:40.909Z</time></trkpt><trkpt lat="39.70775564982679" lon="9.620841221972476"><ele>228.0</ele><time>2026-04-28T14:47:41.909Z</time></trkpt><trkpt lat="39.70788557761126" lon="9.620958143474311"><ele>231.33333333333331</ele><time>2026-04-28T14:47:42.909Z</time></trkpt><trkpt lat="39.708006769618244" lon="9.621084785366675"><ele>234.66666666666666</ele><time>2026-04-28T14:47:43.909Z</time></trkpt><trkpt lat="39.70812807885342" lon="9.621202116048103"><ele>238.0</ele><time>2026-04-28T14:47:44.909Z</time></trkpt><trkpt lat="39.708250408265584" lon="9.621327929886776"><ele>234.33333333333331</ele><time>2026-04-28T14:47:45.909Z</time></trkpt><trkpt lat="39.70838528260702" lon="9.621455155852235"><ele>230.66666666666669</ele><time>2026-04-28T14:47:46.91Z</time></trkpt><trkpt lat="39.708523578636246" lon="9.621589227499284"><ele>227.0</ele><time>2026-04-28T14:47:47.91Z</time></trkpt><trkpt lat="39.7086377605548" lon="9.621712985713666"><ele>227.0</ele><time>2026-04-28T14:47:48.91Z</time></trkpt><trkpt lat="39.70875907168248" lon="9.621832692566187"><ele>227.0</ele><time>2026-04-28T14:47:49.91Z</time></trkpt><trkpt lat="39.708879963512096" lon="9.621953683460871"><ele>227.0</ele><time>2026-04-28T14:47:50.91Z</time></trkpt><trkpt lat="39.70899541701835" lon="9.62207357758959"><ele>226.75</ele><time>2026-04-28T14:47:51.91Z</time></trkpt><trkpt lat="39.70912010109839" lon="9.622179219123478"><ele>226.5</ele><time>2026-04-28T14:47:52.909Z</time></trkpt><trkpt lat="39.70923649281446" lon="9.622291831772019"><ele>226.25</ele><time>2026-04-28T14:47:53.909Z</time></trkpt><trkpt lat="39.709356129806146" lon="9.622401817463421"><ele>226.0</ele><time>2026-04-28T14:47:54.909Z</time></trkpt><trkpt lat="39.70946493416965" lon="9.622519345193307"><ele>226.0</ele><time>2026-04-28T14:47:55.91Z</time></trkpt><trkpt lat="39.70956366291423" lon="9.622624061899314"><ele>226.00000000000003</ele><time>2026-04-28T14:47:56.909Z</time></trkpt><trkpt lat="39.709643475899" lon="9.622721512113268"><ele>226.00000000000003</ele><time>2026-04-28T14:47:57.909Z</time></trkpt><trkpt lat="39.709709102495246" lon="9.622814640262785"><ele>226.0</ele><time>2026-04-28T14:47:58.909Z</time></trkpt><trkpt lat="39.709752763027204" lon="9.62290481580197"><ele>226.0</ele><time>2026-04-28T14:47:59.91Z</time></trkpt><trkpt lat="39.70976441721193" lon="9.623001065659146"><ele>223.99999999999997</ele><time>2026-04-28T14:48:00.91Z</time></trkpt><trkpt lat="39.70974736244767" lon="9.62309865536194"><ele>222.0</ele><time>2026-04-28T14:48:01.909Z</time></trkpt><trkpt lat="39.709715658126555" lon="9.623201272435903"><ele>220.0</ele><time>2026-04-28T14:48:02.909Z</time></trkpt><trkpt lat="39.709648546838054" lon="9.623273780700927"><ele>218.0</ele><time>2026-04-28T14:48:03.91Z</time></trkpt><trkpt lat="39.709559471200194" lon="9.623313869620674"><ele>215.99999999999997</ele><time>2026-04-28T14:48:04.91Z</time></trkpt><trkpt lat="39.70946711678557" lon="9.623310590358196"><ele>214.0</ele><time>2026-04-28T14:48:05.909Z</time></trkpt><trkpt lat="39.70937193089535" lon="9.623271031656598"><ele>205.5</ele><time>2026-04-28T14:48:06.909Z</time></trkpt><trkpt lat="39.70926335404754" lon="9.623195381946399"><ele>197.0</ele><time>2026-04-28T14:48:07.909Z</time></trkpt><trkpt lat="39.70915365187576" lon="9.623096995350846"><ele>188.5</ele><time>2026-04-28T14:48:08.909Z</time></trkpt><trkpt lat="39.70904151075171" lon="9.623018157162164"><ele>180.0</ele><time>2026-04-28T14:48:09.909Z</time></trkpt><trkpt lat="39.70892288221585" lon="9.622948394237971"><ele>180.0</ele><time>2026-04-28T14:48:10.909Z</time></trkpt><trkpt lat="39.70879272016349" lon="9.622878835714433"><ele>180.0</ele><time>2026-04-28T14:48:11.909Z</time></trkpt><trkpt lat="39.70865336965511" lon="9.622817902398612"><ele>180.0</ele><time>2026-04-28T14:48:12.909Z</time></trkpt><trkpt lat="39.70851376958014" lon="9.622768787241442"><ele>180.0</ele><time>2026-04-28T14:48:13.909Z</time></trkpt><trkpt lat="39.70837266882185" lon="9.622729543041263"><ele>181.25</ele><time>2026-04-28T14:48:14.909Z</time></trkpt><trkpt lat="39.70823976321491" lon="9.622682448880928"><ele>182.5</ele><time>2026-04-28T14:48:15.909Z</time></trkpt><trkpt lat="39.70810995367848" lon="9.622655599179126"><ele>183.75</ele><time>2026-04-28T14:48:16.909Z</time></trkpt><trkpt lat="39.70798635101564" lon="9.622646962318324"><ele>185.0</ele><time>2026-04-28T14:48:17.909Z</time></trkpt><trkpt lat="39.7078535007391" lon="9.622679676044081"><ele>185.75</ele><time>2026-04-28T14:48:18.91Z</time></trkpt><trkpt lat="39.707725928216654" lon="9.622732863721279"><ele>186.5</ele><time>2026-04-28T14:48:19.91Z</time></trkpt><trkpt lat="39.70757910718486" lon="9.622781243906333"><ele>187.25</ele><time>2026-04-28T14:48:20.91Z</time></trkpt><trkpt lat="39.707450537411766" lon="9.622839184449717"><ele>188.0</ele><time>2026-04-28T14:48:21.91Z</time></trkpt><trkpt lat="39.70731978918054" lon="9.622895606371808"><ele>183.0</ele><time>2026-04-28T14:48:22.91Z</time></trkpt><trkpt lat="39.707188605787486" lon="9.62296088998043"><ele>178.0</ele><time>2026-04-28T14:48:23.91Z</time></trkpt><trkpt lat="39.70706775785208" lon="9.623046424285219"><ele>173.0</ele><time>2026-04-28T14:48:24.91Z</time></trkpt><trkpt lat="39.70695117032095" lon="9.623158803265278"><ele>168.0</ele><time>2026-04-28T14:48:25.91Z</time></trkpt><trkpt lat="39.706848503630574" lon="9.623272262913268"><ele>168.0</ele><time>2026-04-28T14:48:26.91Z</time></trkpt><trkpt lat="39.70675437161301" lon="9.623383864925641"><ele>168.0</ele><time>2026-04-28T14:48:27.91Z</time></trkpt><trkpt lat="39.706656268624" lon="9.623486156587889"><ele>168.0</ele><time>2026-04-28T14:48:28.91Z</time></trkpt><trkpt lat="39.70655518321182" lon="9.623571587723465"><ele>168.0</ele><time>2026-04-28T14:48:29.91Z</time></trkpt><trkpt lat="39.706435352879616" lon="9.623639953699412"><ele>162.25</ele><time>2026-04-28T14:48:30.91Z</time></trkpt><trkpt lat="39.7063114615713" lon="9.62370931457785"><ele>156.5</ele><time>2026-04-28T14:48:31.91Z</time></trkpt><trkpt lat="39.70618729833922" lon="9.623776225459771"><ele>150.75</ele><time>2026-04-28T14:48:32.91Z</time></trkpt><trkpt lat="39.7060676694462" lon="9.623835861179945"><ele>145.0</ele><time>2026-04-28T14:48:33.91Z</time></trkpt><trkpt lat="39.705937178123115" lon="9.623887418115324"><ele>145.0</ele><time>2026-04-28T14:48:34.91Z</time></trkpt><trkpt lat="39.70579134215426" lon="9.623886756933517"><ele>145.0</ele><time>2026-04-28T14:48:35.91Z</time></trkpt><trkpt lat="39.70563843868282" lon="9.623899647893786"><ele>145.0</ele><time>2026-04-28T14:48:36.91Z</time></trkpt><trkpt lat="39.70548555192765" lon="9.623913272623163"><ele>145.0</ele><time>2026-04-28T14:48:37.91Z</time></trkpt><trkpt lat="39.70534259523201" lon="9.623945115193145"><ele>145.0</ele><time>2026-04-28T14:48:38.91Z</time></trkpt><trkpt lat="39.70521992520861" lon="9.623954301668086"><ele>145.0</ele><time>2026-04-28T14:48:39.91Z</time></trkpt><trkpt lat="39.70511816993275" lon="9.623979841541631"><ele>145.0</ele><time>2026-04-28T14:48:40.91Z</time></trkpt><trkpt lat="39.7050346881495" lon="9.624038421239735"><ele>146.25</ele><time>2026-04-28T14:48:41.91Z</time></trkpt><trkpt lat="39.7049662580011" lon="9.62414272444457"><ele>147.5</ele><time>2026-04-28T14:48:42.91Z</time></trkpt><trkpt lat="39.70490830178812" lon="9.624267859294125"><ele>148.75</ele><time>2026-04-28T14:48:43.91Z</time></trkpt><trkpt lat="39.70486717573358" lon="9.624403586969116"><ele>150.0</ele><time>2026-04-28T14:48:44.91Z</time></trkpt><trkpt lat="39.70479633717107" lon="9.624542786829556"><ele>145.0</ele><time>2026-04-28T14:48:45.91Z</time></trkpt><trkpt lat="39.704737594913865" lon="9.624691849772464"><ele>140.0</ele><time>2026-04-28T14:48:46.91Z</time></trkpt><trkpt lat="39.70468794010848" lon="9.624818481640022"><ele>135.0</ele><time>2026-04-28T14:48:47.91Z</time></trkpt><trkpt lat="39.704648288727" lon="9.624897316395963"><ele>130.0</ele><time>2026-04-28T14:48:48.91Z</time></trkpt><trkpt lat="39.704588301119514" lon="9.624960661940973"><ele>125.0</ele><time>2026-04-28T14:48:49.91Z</time></trkpt><trkpt lat="39.704512026550844" lon="9.62499493195405"><ele>125.0</ele><time>2026-04-28T14:48:50.91Z</time></trkpt><trkpt lat="39.704413006520795" lon="9.625000473966214"><ele>125.0</ele><time>2026-04-28T14:48:51.91Z</time></trkpt><trkpt lat="39.70429512901694" lon="9.624999769307994"><ele>125.0</ele><time>2026-04-28T14:48:52.91Z</time></trkpt><trkpt lat="39.70417111888883" lon="9.625019673637814"><ele>125.0</ele><time>2026-04-28T14:48:53.91Z</time></trkpt><trkpt lat="39.70405889196101" lon="9.625087266793347"><ele>120.0</ele><time>2026-04-28T14:48:54.91Z</time></trkpt><trkpt lat="39.703947241977836" lon="9.625163050676989"><ele>115.0</ele><time>2026-04-28T14:48:55.91Z</time></trkpt><trkpt lat="39.7038399741673" lon="9.625240956455345"><ele>110.0</ele><time>2026-04-28T14:48:56.91Z</time></trkpt><trkpt lat="39.70373965024134" lon="9.62533518921588"><ele>105.0</ele><time>2026-04-28T14:48:57.91Z</time></trkpt><trkpt lat="39.7036287658364" lon="9.625390723885406"><ele>108.5</ele><time>2026-04-28T14:48:58.91Z</time></trkpt><trkpt lat="39.70350276505634" lon="9.625420928181233"><ele>112.0</ele><time>2026-04-28T14:48:59.91Z</time></trkpt><trkpt lat="39.70337350291331" lon="9.625433363459155"><ele>115.5</ele><time>2026-04-28T14:49:00.91Z</time></trkpt><trkpt lat="39.70325621239139" lon="9.62542240113638"><ele>119.0</ele><time>2026-04-28T14:49:01.91Z</time></trkpt><trkpt lat="39.70313728651594" lon="9.625456544473352"><ele>119.0</ele><time>2026-04-28T14:49:02.91Z</time></trkpt><trkpt lat="39.70303332213267" lon="9.62554124337793"><ele>119.0</ele><time>2026-04-28T14:49:03.91Z</time></trkpt><trkpt lat="39.702925051398836" lon="9.625644921918475"><ele>119.0</ele><time>2026-04-28T14:49:04.91Z</time></trkpt><trkpt lat="39.70281160117764" lon="9.625757200217928"><ele>119.0</ele><time>2026-04-28T14:49:05.91Z</time></trkpt><trkpt lat="39.70269938293706" lon="9.625858690352846"><ele>121.75</ele><time>2026-04-28T14:49:06.91Z</time></trkpt><trkpt lat="39.70258146954928" lon="9.625927687624038"><ele>124.5</ele><time>2026-04-28T14:49:07.91Z</time></trkpt><trkpt lat="39.70245496452615" lon="9.625974371467931"><ele>127.25</ele><time>2026-04-28T14:49:08.91Z</time></trkpt><trkpt lat="39.7023298208951" lon="9.626009187946439"><ele>130.0</ele><time>2026-04-28T14:49:09.91Z</time></trkpt><trkpt lat="39.70222759593493" lon="9.626017808602574"><ele>130.0</ele><time>2026-04-28T14:49:10.91Z</time></trkpt><trkpt lat="39.702145492616545" lon="9.62601376803952"><ele>130.0</ele><time>2026-04-28T14:49:11.91Z</time></trkpt><trkpt lat="39.702090782905536" lon="9.625952057607492"><ele>130.0</ele><time>2026-04-28T14:49:12.91Z</time></trkpt><trkpt lat="39.70202665735383" lon="9.62587533785037"><ele>130.0</ele><time>2026-04-28T14:49:13.91Z</time></trkpt><trkpt lat="39.70195745336294" lon="9.62575300578339"><ele>130.0</ele><time>2026-04-28T14:49:14.91Z</time></trkpt><trkpt lat="39.701874307957155" lon="9.62562238671961"><ele>126.2</ele><time>2026-04-28T14:49:15.91Z</time></trkpt><trkpt lat="39.701789270303685" lon="9.62551615395333"><ele>122.4</ele><time>2026-04-28T14:49:16.91Z</time></trkpt><trkpt lat="39.70169816229173" lon="9.625453653299303"><ele>118.6</ele><time>2026-04-28T14:49:17.91Z</time></trkpt><trkpt lat="39.70159660086552" lon="9.625431718497543"><ele>114.8</ele><time>2026-04-28T14:49:18.91Z</time></trkpt><trkpt lat="39.70149126893957" lon="9.6254461775309"><ele>111.0</ele><time>2026-04-28T14:49:19.911Z</time></trkpt><trkpt lat="39.70139256596638" lon="9.625488668163857"><ele>111.0</ele><time>2026-04-28T14:49:20.911Z</time></trkpt><trkpt lat="39.7013201777045" lon="9.62557115957465"><ele>111.0</ele><time>2026-04-28T14:49:21.911Z</time></trkpt><trkpt lat="39.70126945086265" lon="9.625657104814431"><ele>111.0</ele><time>2026-04-28T14:49:22.911Z</time></trkpt><trkpt lat="39.701223825829786" lon="9.625765483879407"><ele>111.0</ele><time>2026-04-28T14:49:23.911Z</time></trkpt><trkpt lat="39.701176376455344" lon="9.625890979942778"><ele>111.0</ele><time>2026-04-28T14:49:24.911Z</time></trkpt><trkpt lat="39.70112436701683" lon="9.6260318652737"><ele>109.6</ele><time>2026-04-28T14:49:25.911Z</time></trkpt><trkpt lat="39.701071428659745" lon="9.626173556427942"><ele>108.19999999999999</ele><time>2026-04-28T14:49:26.911Z</time></trkpt><trkpt lat="39.701018024565144" lon="9.626309731580662"><ele>106.80000000000001</ele><time>2026-04-28T14:49:27.911Z</time></trkpt><trkpt lat="39.70097171425724" lon="9.6264277096102"><ele>105.4</ele><time>2026-04-28T14:49:28.911Z</time></trkpt><trkpt lat="39.70091393504873" lon="9.626510716421157"><ele>104.0</ele><time>2026-04-28T14:49:29.911Z</time></trkpt><trkpt lat="39.70084021661714" lon="9.62656959368273"><ele>104.0</ele><time>2026-04-28T14:49:30.911Z</time></trkpt><trkpt lat="39.700753680499396" lon="9.62659677388862"><ele>104.0</ele><time>2026-04-28T14:49:31.911Z</time></trkpt><trkpt lat="39.70064681605012" lon="9.62656473593931"><ele>104.0</ele><time>2026-04-28T14:49:32.911Z</time></trkpt><trkpt lat="39.70053491601949" lon="9.626554253790296"><ele>104.0</ele><time>2026-04-28T14:49:33.911Z</time></trkpt><trkpt lat="39.70042021293925" lon="9.626560271684346"><ele>104.0</ele><time>2026-04-28T14:49:34.911Z</time></trkpt><trkpt lat="39.7003314718037" lon="9.62659701369854"><ele>104.0</ele><time>2026-04-28T14:49:35.911Z</time></trkpt><trkpt lat="39.70027219618523" lon="9.626682464942515"><ele>104.0</ele><time>2026-04-28T14:49:36.911Z</time></trkpt><trkpt lat="39.700240634371596" lon="9.626802166194622"><ele>104.0</ele><time>2026-04-28T14:49:37.911Z</time></trkpt><trkpt lat="39.70020406795872" lon="9.626924786579458"><ele>104.0</ele><time>2026-04-28T14:49:38.911Z</time></trkpt><trkpt lat="39.700159131356706" lon="9.627049740559086"><ele>104.0</ele><time>2026-04-28T14:49:39.911Z</time></trkpt><trkpt lat="39.70010366694722" lon="9.62716755457033"><ele>102.0</ele><time>2026-04-28T14:49:40.911Z</time></trkpt><trkpt lat="39.70003463803241" lon="9.627270912151106"><ele>100.0</ele><time>2026-04-28T14:49:41.911Z</time></trkpt><trkpt lat="39.69995162300914" lon="9.627353556913054"><ele>98.0</ele><time>2026-04-28T14:49:42.911Z</time></trkpt><trkpt lat="39.69984826379532" lon="9.627418680725057"><ele>96.0</ele><time>2026-04-28T14:49:43.911Z</time></trkpt><trkpt lat="39.69971985852682" lon="9.627447055767167"><ele>96.0</ele><time>2026-04-28T14:49:44.911Z</time></trkpt><trkpt lat="39.69957765665888" lon="9.627498728958166"><ele>96.0</ele><time>2026-04-28T14:49:45.911Z</time></trkpt><trkpt lat="39.6994184207177" lon="9.62755706347958"><ele>96.0</ele><time>2026-04-28T14:49:46.911Z</time></trkpt><trkpt lat="39.699262181171314" lon="9.627612858861209"><ele>99.33333333333334</ele><time>2026-04-28T14:49:47.911Z</time></trkpt><trkpt lat="39.69910265020116" lon="9.6276680250418"><ele>102.66666666666667</ele><time>2026-04-28T14:49:48.911Z</time></trkpt><trkpt lat="39.69896190961055" lon="9.627713820104905"><ele>106.0</ele><time>2026-04-28T14:49:49.911Z</time></trkpt><trkpt lat="39.69881435095119" lon="9.62776272470015"><ele>106.0</ele><time>2026-04-28T14:49:50.911Z</time></trkpt><trkpt lat="39.698673326775825" lon="9.627807000124438"><ele>106.0</ele><time>2026-04-28T14:49:51.911Z</time></trkpt><trkpt lat="39.69853568837684" lon="9.627849102533615"><ele>106.0</ele><time>2026-04-28T14:49:52.911Z</time></trkpt><trkpt lat="39.69840585766649" lon="9.627884418149906"><ele>106.0</ele><time>2026-04-28T14:49:53.911Z</time></trkpt><trkpt lat="39.69828591471612" lon="9.627892696765683"><ele>106.5</ele><time>2026-04-28T14:49:54.911Z</time></trkpt><trkpt lat="39.69815806834017" lon="9.627887789992162"><ele>107.0</ele><time>2026-04-28T14:49:55.911Z</time></trkpt><trkpt lat="39.69801927990851" lon="9.627857525823245"><ele>107.5</ele><time>2026-04-28T14:49:56.911Z</time></trkpt><trkpt lat="39.69788158923367" lon="9.627808547143072"><ele>108.0</ele><time>2026-04-28T14:49:57.911Z</time></trkpt><trkpt lat="39.69775502383099" lon="9.627768560912747"><ele>104.2</ele><time>2026-04-28T14:49:58.91Z</time></trkpt><trkpt lat="39.69764746588695" lon="9.627750864699768"><ele>100.4</ele><time>2026-04-28T14:49:59.91Z</time></trkpt><trkpt lat="39.697540993591545" lon="9.627777998927314"><ele>96.60000000000001</ele><time>2026-04-28T14:50:00.911Z</time></trkpt><trkpt lat="39.697452069092925" lon="9.627832587654519"><ele>92.80000000000001</ele><time>2026-04-28T14:50:01.911Z</time></trkpt><trkpt lat="39.6973711223826" lon="9.627929877102323"><ele>89.0</ele><time>2026-04-28T14:50:02.911Z</time></trkpt><trkpt lat="39.69728236798113" lon="9.628057421668704"><ele>85.25</ele><time>2026-04-28T14:50:03.911Z</time></trkpt><trkpt lat="39.697198186663684" lon="9.628195029578825"><ele>81.5</ele><time>2026-04-28T14:50:04.911Z</time></trkpt><trkpt lat="39.69710239413497" lon="9.628340970221709"><ele>77.75</ele><time>2026-04-28T14:50:05.911Z</time></trkpt><trkpt lat="39.69700983732837" lon="9.628505220843138"><ele>74.0</ele><time>2026-04-28T14:50:06.91Z</time></trkpt><trkpt lat="39.69691374100311" lon="9.628659741910853"><ele>72.33333333333334</ele><time>2026-04-28T14:50:07.91Z</time></trkpt><trkpt lat="39.69681397461553" lon="9.628819173028393"><ele>70.66666666666667</ele><time>2026-04-28T14:50:08.91Z</time></trkpt><trkpt lat="39.696708694206855" lon="9.628988464158876"><ele>69.0</ele><time>2026-04-28T14:50:09.911Z</time></trkpt><trkpt lat="39.69660695304213" lon="9.629155394935504"><ele>69.0</ele><time>2026-04-28T14:50:10.911Z</time></trkpt><trkpt lat="39.696510925729676" lon="9.629317897695996"><ele>69.0</ele><time>2026-04-28T14:50:11.911Z</time></trkpt><trkpt lat="39.69642256123382" lon="9.629481328515457"><ele>69.0</ele><time>2026-04-28T14:50:12.911Z</time></trkpt><trkpt lat="39.69635990324952" lon="9.6296455063207"><ele>67.25</ele><time>2026-04-28T14:50:13.911Z</time></trkpt><trkpt lat="39.69632005418988" lon="9.629819798039705"><ele>65.5</ele><time>2026-04-28T14:50:14.911Z</time></trkpt><trkpt lat="39.69630425739047" lon="9.629993116583599"><ele>63.75</ele><time>2026-04-28T14:50:15.911Z</time></trkpt><trkpt lat="39.696298112194064" lon="9.630189548696398"><ele>62.0</ele><time>2026-04-28T14:50:16.911Z</time></trkpt><trkpt lat="39.696300974817106" lon="9.630381188070947"><ele>60.0</ele><time>2026-04-28T14:50:17.911Z</time></trkpt><trkpt lat="39.69630374477873" lon="9.630574723142379"><ele>58.0</ele><time>2026-04-28T14:50:18.911Z</time></trkpt><trkpt lat="39.69630405139005" lon="9.630777334062516"><ele>56.0</ele><time>2026-04-28T14:50:19.911Z</time></trkpt><trkpt lat="39.69630408866925" lon="9.63098481536937"><ele>55.333333333333336</ele><time>2026-04-28T14:50:20.911Z</time></trkpt><trkpt lat="39.69629979631031" lon="9.631194581904685"><ele>54.66666666666667</ele><time>2026-04-28T14:50:21.911Z</time></trkpt><trkpt lat="39.69628547012979" lon="9.63140640653"><ele>54.0</ele><time>2026-04-28T14:50:22.911Z</time></trkpt><trkpt lat="39.696256660984446" lon="9.631619598351428"><ele>54.0</ele><time>2026-04-28T14:50:23.911Z</time></trkpt><trkpt lat="39.69621953270866" lon="9.631830187770918"><ele>54.0</ele><time>2026-04-28T14:50:24.911Z</time></trkpt><trkpt lat="39.69618218480363" lon="9.63204100860469"><ele>54.0</ele><time>2026-04-28T14:50:25.911Z</time></trkpt><trkpt lat="39.696145531914894" lon="9.63225310418853"><ele>54.0</ele><time>2026-04-28T14:50:26.911Z</time></trkpt><trkpt lat="39.6961097400062" lon="9.632465070368088"><ele>54.0</ele><time>2026-04-28T14:50:27.911Z</time></trkpt><trkpt lat="39.69606937693636" lon="9.632674325492005"><ele>54.0</ele><time>2026-04-28T14:50:28.911Z</time></trkpt><trkpt lat="39.696027224575644" lon="9.632876541506675"><ele>54.0</ele><time>2026-04-28T14:50:29.911Z</time></trkpt><trkpt lat="39.69598803878567" lon="9.633073262674259"><ele>54.0</ele><time>2026-04-28T14:50:30.911Z</time></trkpt><trkpt lat="39.695955347758044" lon="9.63326186207193"><ele>54.0</ele><time>2026-04-28T14:50:31.911Z</time></trkpt><trkpt lat="39.695919434982834" lon="9.633446977782826"><ele>54.0</ele><time>2026-04-28T14:50:32.911Z</time></trkpt><trkpt lat="39.69587664991907" lon="9.633626766606422"><ele>54.0</ele><time>2026-04-28T14:50:33.911Z</time></trkpt><trkpt lat="39.69582910354087" lon="9.633805526704968"><ele>54.0</ele><time>2026-04-28T14:50:34.911Z</time></trkpt><trkpt lat="39.69578342954098" lon="9.63398230050506"><ele>54.0</ele><time>2026-04-28T14:50:35.911Z</time></trkpt><trkpt lat="39.695731794028575" lon="9.634160704949887"><ele>52.5</ele><time>2026-04-28T14:50:36.911Z</time></trkpt><trkpt lat="39.695686621837496" lon="9.634342189572928"><ele>51.0</ele><time>2026-04-28T14:50:37.911Z</time></trkpt><trkpt lat="39.69564520613532" lon="9.634518966707263"><ele>49.5</ele><time>2026-04-28T14:50:38.911Z</time></trkpt><trkpt lat="39.69559679625292" lon="9.634682725441378"><ele>48.0</ele><time>2026-04-28T14:50:39.911Z</time></trkpt><trkpt lat="39.6955568410519" lon="9.634839734815268"><ele>47.2</ele><time>2026-04-28T14:50:40.911Z</time></trkpt><trkpt lat="39.69551362346578" lon="9.63497786836558"><ele>46.4</ele><time>2026-04-28T14:50:41.911Z</time></trkpt><trkpt lat="39.69546545434219" lon="9.635095409945112"><ele>45.6</ele><time>2026-04-28T14:50:42.911Z</time></trkpt><trkpt lat="39.69539022862354" lon="9.635195653103317"><ele>44.800000000000004</ele><time>2026-04-28T14:50:43.911Z</time></trkpt><trkpt lat="39.695299452418205" lon="9.635293726538565"><ele>44.0</ele><time>2026-04-28T14:50:44.911Z</time></trkpt><trkpt lat="39.69520937286167" lon="9.635403483666806"><ele>44.0</ele><time>2026-04-28T14:50:45.911Z</time></trkpt><trkpt lat="39.695113616023995" lon="9.635529227468863"><ele>44.0</ele><time>2026-04-28T14:50:46.911Z</time></trkpt><trkpt lat="39.69501385129527" lon="9.635660452995564"><ele>44.0</ele><time>2026-04-28T14:50:47.911Z</time></trkpt><trkpt lat="39.694913036557026" lon="9.635787085228802"><ele>44.0</ele><time>2026-04-28T14:50:48.911Z</time></trkpt><trkpt lat="39.694809864289354" lon="9.63591077219528"><ele>44.0</ele><time>2026-04-28T14:50:49.911Z</time></trkpt><trkpt lat="39.69470316272562" lon="9.636023252917548"><ele>44.0</ele><time>2026-04-28T14:50:50.911Z</time></trkpt><trkpt lat="39.69458896343846" lon="9.636111097912256"><ele>44.0</ele><time>2026-04-28T14:50:51.911Z</time></trkpt><trkpt lat="39.69447486831962" lon="9.636186145706068"><ele>44.0</ele><time>2026-04-28T14:50:52.911Z</time></trkpt><trkpt lat="39.694367808591394" lon="9.63624272805144"><ele>43.800000000000004</ele><time>2026-04-28T14:50:53.911Z</time></trkpt><trkpt lat="39.694270149244595" lon="9.63626607654366"><ele>43.6</ele><time>2026-04-28T14:50:54.911Z</time></trkpt><trkpt lat="39.69417859910166" lon="9.63629277452001"><ele>43.4</ele><time>2026-04-28T14:50:55.911Z</time></trkpt><trkpt lat="39.69411093843976" lon="9.636321865286183"><ele>43.2</ele><time>2026-04-28T14:50:56.912Z</time></trkpt><trkpt lat="39.69403942017516" lon="9.636412505501681"><ele>43.0</ele><time>2026-04-28T14:50:58.912Z</time></trkpt><trkpt lat="39.69398088799959" lon="9.636538910961995"><ele>43.0</ele><time>2026-04-28T14:51:00.912Z</time></trkpt><trkpt lat="39.693914845132696" lon="9.63660685539399"><ele>43.0</ele><time>2026-04-28T14:51:01.912Z</time></trkpt><trkpt lat="39.693829616474694" lon="9.636682405634295"><ele>43.0</ele><time>2026-04-28T14:51:02.912Z</time></trkpt><trkpt lat="39.6937393410359" lon="9.636765103598647"><ele>43.0</ele><time>2026-04-28T14:51:03.912Z</time></trkpt><trkpt lat="39.69364725786204" lon="9.636859254162195"><ele>43.0</ele><time>2026-04-28T14:51:04.912Z</time></trkpt><trkpt lat="39.69355048048556" lon="9.636942423752624"><ele>42.199999999999996</ele><time>2026-04-28T14:51:05.912Z</time></trkpt><trkpt lat="39.69347808387839" lon="9.63704734309369"><ele>41.4</ele><time>2026-04-28T14:51:06.912Z</time></trkpt><trkpt lat="39.693424470916504" lon="9.637157307018619"><ele>40.599999999999994</ele><time>2026-04-28T14:51:07.912Z</time></trkpt><trkpt lat="39.69339761415348" lon="9.637271627613544"><ele>39.8</ele><time>2026-04-28T14:51:08.912Z</time></trkpt><trkpt lat="39.6933718508148" lon="9.637383644321707"><ele>39.0</ele><time>2026-04-28T14:51:09.912Z</time></trkpt><trkpt lat="39.693375893411066" lon="9.637522241510851"><ele>39.0</ele><time>2026-04-28T14:51:10.912Z</time></trkpt><trkpt lat="39.69337633100023" lon="9.637650892036655"><ele>39.0</ele><time>2026-04-28T14:51:11.912Z</time></trkpt><trkpt lat="39.69338065635548" lon="9.637786199925944"><ele>39.0</ele><time>2026-04-28T14:51:12.912Z</time></trkpt><trkpt lat="39.69338472088024" lon="9.637913348347668"><ele>39.0</ele><time>2026-04-28T14:51:13.912Z</time></trkpt><trkpt lat="39.69338908414417" lon="9.638049841943628"><ele>39.0</ele><time>2026-04-28T14:51:14.912Z</time></trkpt><trkpt lat="39.69339202084309" lon="9.63821057611637"><ele>38.333333333333336</ele><time>2026-04-28T14:51:15.912Z</time></trkpt><trkpt lat="39.693392206898196" lon="9.638369512669572"><ele>37.66666666666667</ele><time>2026-04-28T14:51:16.912Z</time></trkpt><trkpt lat="39.693381214969655" lon="9.638542144175586"><ele>37.0</ele><time>2026-04-28T14:51:17.912Z</time></trkpt><trkpt lat="39.693337895023284" lon="9.638948309711322"><ele>36.5</ele><time>2026-04-28T14:51:18.912Z</time></trkpt><trkpt lat="39.69331815514161" lon="9.639139190357824"><ele>36.0</ele><time>2026-04-28T14:51:19.912Z</time></trkpt><trkpt lat="39.69330082746181" lon="9.639330002302676"><ele>35.5</ele><time>2026-04-28T14:51:20.912Z</time></trkpt><trkpt lat="39.69328585930031" lon="9.639518687399782"><ele>35.0</ele><time>2026-04-28T14:51:21.912Z</time></trkpt><trkpt lat="39.69327205143203" lon="9.639700790483689"><ele>34.0</ele><time>2026-04-28T14:51:22.912Z</time></trkpt><trkpt lat="39.6932694478907" lon="9.639881727026989"><ele>33.0</ele><time>2026-04-28T14:51:23.912Z</time></trkpt><trkpt lat="39.69325814820877" lon="9.640063069814223"><ele>32.0</ele><time>2026-04-28T14:51:24.912Z</time></trkpt><trkpt lat="39.69326222402943" lon="9.640248077553666"><ele>31.0</ele><time>2026-04-28T14:51:25.912Z</time></trkpt><trkpt lat="39.69327715315413" lon="9.640436792892427"><ele>30.0</ele><time>2026-04-28T14:51:26.912Z</time></trkpt><trkpt lat="39.69330016384486" lon="9.640626107940594"><ele>29.0</ele><time>2026-04-28T14:51:27.912Z</time></trkpt><trkpt lat="39.6933246452074" lon="9.64080459155324"><ele>28.0</ele><time>2026-04-28T14:51:28.912Z</time></trkpt><trkpt lat="39.69334389223513" lon="9.640983843507085"><ele>27.0</ele><time>2026-04-28T14:51:29.912Z</time></trkpt><trkpt lat="39.693359649260785" lon="9.641157956131881"><ele>26.25</ele><time>2026-04-28T14:51:30.912Z</time></trkpt><trkpt lat="39.693376957363405" lon="9.641324438606642"><ele>25.5</ele><time>2026-04-28T14:51:31.912Z</time></trkpt><trkpt lat="39.693391577726146" lon="9.641486894975346"><ele>24.75</ele><time>2026-04-28T14:51:32.912Z</time></trkpt><trkpt lat="39.693405165137534" lon="9.64164371142479"><ele>24.0</ele><time>2026-04-28T14:51:33.912Z</time></trkpt><trkpt lat="39.6934203254032" lon="9.64180179425804"><ele>24.0</ele><time>2026-04-28T14:51:34.912Z</time></trkpt><trkpt lat="39.69343393930217" lon="9.641964605042428"><ele>24.0</ele><time>2026-04-28T14:51:35.912Z</time></trkpt><trkpt lat="39.69344445263761" lon="9.642131856598505"><ele>24.0</ele><time>2026-04-28T14:51:36.912Z</time></trkpt><trkpt lat="39.69345251740592" lon="9.642306344550777"><ele>24.0</ele><time>2026-04-28T14:51:37.912Z</time></trkpt><trkpt lat="39.69342829301829" lon="9.64248539174661"><ele>23.0</ele><time>2026-04-28T14:51:38.912Z</time></trkpt><trkpt lat="39.69340740394266" lon="9.642669700577652"><ele>22.0</ele><time>2026-04-28T14:51:39.912Z</time></trkpt><trkpt lat="39.69338308786135" lon="9.642858318943453"><ele>21.0</ele><time>2026-04-28T14:51:40.912Z</time></trkpt><trkpt lat="39.69335700065359" lon="9.643064702063347"><ele>20.75</ele><time>2026-04-28T14:51:41.912Z</time></trkpt><trkpt lat="39.693333509737286" lon="9.643250434161951"><ele>20.5</ele><time>2026-04-28T14:51:42.912Z</time></trkpt><trkpt lat="39.693310736005564" lon="9.6434439901995"><ele>20.25</ele><time>2026-04-28T14:51:43.912Z</time></trkpt><trkpt lat="39.693287230956145" lon="9.643629892487294"><ele>20.0</ele><time>2026-04-28T14:51:44.912Z</time></trkpt><trkpt lat="39.69327334924726" lon="9.643821327651972"><ele>19.5</ele><time>2026-04-28T14:51:45.912Z</time></trkpt><trkpt lat="39.69327706650117" lon="9.644017487449618"><ele>19.0</ele><time>2026-04-28T14:51:46.912Z</time></trkpt><trkpt lat="39.69329068730605" lon="9.64420808864335"><ele>18.5</ele><time>2026-04-28T14:51:47.912Z</time></trkpt><trkpt lat="39.693311650452785" lon="9.644396322856924"><ele>18.0</ele><time>2026-04-28T14:51:48.912Z</time></trkpt><trkpt lat="39.6933094690901" lon="9.644589165663998"><ele>17.75</ele><time>2026-04-28T14:51:49.912Z</time></trkpt><trkpt lat="39.69333483849863" lon="9.644771933327062"><ele>17.5</ele><time>2026-04-28T14:51:50.912Z</time></trkpt><trkpt lat="39.693339819890376" lon="9.644935959040822"><ele>17.25</ele><time>2026-04-28T14:51:51.912Z</time></trkpt><trkpt lat="39.69333358784079" lon="9.645103043918645"><ele>17.0</ele><time>2026-04-28T14:51:52.912Z</time></trkpt><trkpt lat="39.693319712019814" lon="9.645278325273647"><ele>16.75</ele><time>2026-04-28T14:51:53.912Z</time></trkpt><trkpt lat="39.69329743063935" lon="9.64546381403671"><ele>16.5</ele><time>2026-04-28T14:51:54.912Z</time></trkpt><trkpt lat="39.69326836168574" lon="9.645654056833736"><ele>16.25</ele><time>2026-04-28T14:51:55.912Z</time></trkpt><trkpt lat="39.69323719534579" lon="9.64584491688855"><ele>16.0</ele><time>2026-04-28T14:51:56.912Z</time></trkpt><trkpt lat="39.69320903115593" lon="9.646037708487071"><ele>15.666666666666666</ele><time>2026-04-28T14:51:57.913Z</time></trkpt><trkpt lat="39.6931635347336" lon="9.646224108426937"><ele>15.333333333333332</ele><time>2026-04-28T14:51:58.913Z</time></trkpt><trkpt lat="39.69313017029732" lon="9.646422325412383"><ele>15.0</ele><time>2026-04-28T14:51:59.913Z</time></trkpt><trkpt lat="39.69310059966177" lon="9.646616773149574"><ele>15.0</ele><time>2026-04-28T14:52:00.913Z</time></trkpt><trkpt lat="39.69306972542195" lon="9.64680617024317"><ele>15.0</ele><time>2026-04-28T14:52:01.913Z</time></trkpt><trkpt lat="39.69304055680037" lon="9.646993121865519"><ele>15.0</ele><time>2026-04-28T14:52:02.913Z</time></trkpt><trkpt lat="39.69301081303828" lon="9.647184291768689"><ele>15.0</ele><time>2026-04-28T14:52:03.912Z</time></trkpt><trkpt lat="39.692964368153504" lon="9.647374720213707"><ele>14.333333333333332</ele><time>2026-04-28T14:52:04.912Z</time></trkpt><trkpt lat="39.69291042667726" lon="9.647564419895014"><ele>13.666666666666666</ele><time>2026-04-28T14:52:05.912Z</time></trkpt><trkpt lat="39.692852779353146" lon="9.647752013593987"><ele>13.0</ele><time>2026-04-28T14:52:06.912Z</time></trkpt><trkpt lat="39.69279404957696" lon="9.647942219130039"><ele>12.333333333333332</ele><time>2026-04-28T14:52:07.913Z</time></trkpt><trkpt lat="39.69273507795346" lon="9.648129508406178"><ele>11.666666666666666</ele><time>2026-04-28T14:52:08.913Z</time></trkpt><trkpt lat="39.69268620841354" lon="9.648322357902499"><ele>11.0</ele><time>2026-04-28T14:52:09.912Z</time></trkpt><trkpt lat="39.692650624176274" lon="9.648524829886657"><ele>10.666666666666666</ele><time>2026-04-28T14:52:10.912Z</time></trkpt><trkpt lat="39.69261567617887" lon="9.648724534884478"><ele>10.333333333333334</ele><time>2026-04-28T14:52:11.912Z</time></trkpt><trkpt lat="39.692597092137795" lon="9.648924120042366"><ele>10.0</ele><time>2026-04-28T14:52:12.912Z</time></trkpt><trkpt lat="39.6925743804544" lon="9.6491268329591"><ele>10.0</ele><time>2026-04-28T14:52:13.912Z</time></trkpt><trkpt lat="39.69255349519575" lon="9.64931160679289"><ele>10.0</ele><time>2026-04-28T14:52:14.912Z</time></trkpt><trkpt lat="39.69253677212211" lon="9.6494870946907"><ele>10.0</ele><time>2026-04-28T14:52:15.913Z</time></trkpt><trkpt lat="39.69252532171992" lon="9.649651519347481"><ele>10.0</ele><time>2026-04-28T14:52:16.913Z</time></trkpt><trkpt lat="39.692520153983054" lon="9.649823281447603"><ele>9.5</ele><time>2026-04-28T14:52:17.913Z</time></trkpt><trkpt lat="39.69253284488433" lon="9.64999921749747"><ele>9.0</ele><time>2026-04-28T14:52:18.913Z</time></trkpt><trkpt lat="39.69255939097802" lon="9.65018478049646"><ele>8.5</ele><time>2026-04-28T14:52:19.913Z</time></trkpt><trkpt lat="39.69258265700137" lon="9.650374699413867"><ele>8.0</ele><time>2026-04-28T14:52:20.913Z</time></trkpt><trkpt lat="39.69261168826202" lon="9.650566324764354"><ele>8.0</ele><time>2026-04-28T14:52:21.913Z</time></trkpt><trkpt lat="39.69264255167" lon="9.650763533582563"><ele>8.0</ele><time>2026-04-28T14:52:22.913Z</time></trkpt><trkpt lat="39.69266755905939" lon="9.650960167979743"><ele>8.0</ele><time>2026-04-28T14:52:23.913Z</time></trkpt><trkpt lat="39.692689660619486" lon="9.651159154857472"><ele>7.75</ele><time>2026-04-28T14:52:24.913Z</time></trkpt><trkpt lat="39.69270367101576" lon="9.651345337333167"><ele>7.5</ele><time>2026-04-28T14:52:25.913Z</time></trkpt><trkpt lat="39.692710840714064" lon="9.651533662384386"><ele>7.25</ele><time>2026-04-28T14:52:26.913Z</time></trkpt><trkpt lat="39.69271167485254" lon="9.651716613276468"><ele>7.0</ele><time>2026-04-28T14:52:27.913Z</time></trkpt><trkpt lat="39.69270589665379" lon="9.651897913952755"><ele>7.0</ele><time>2026-04-28T14:52:28.913Z</time></trkpt><trkpt lat="39.69270972781018" lon="9.65207773555197"><ele>7.0</ele><time>2026-04-28T14:52:29.913Z</time></trkpt><trkpt lat="39.69273020933593" lon="9.652251517631885"><ele>7.0</ele><time>2026-04-28T14:52:30.913Z</time></trkpt><trkpt lat="39.692767509613276" lon="9.652413917725998"><ele>7.0</ele><time>2026-04-28T14:52:31.913Z</time></trkpt><trkpt lat="39.692822548534735" lon="9.652565261764243"><ele>7.0</ele><time>2026-04-28T14:52:32.913Z</time></trkpt><trkpt lat="39.69289665769355" lon="9.652707506344608"><ele>7.0</ele><time>2026-04-28T14:52:33.913Z</time></trkpt><trkpt lat="39.69297778939089" lon="9.652840873465546"><ele>7.0</ele><time>2026-04-28T14:52:34.913Z</time></trkpt><trkpt lat="39.693081826942006" lon="9.652964845012038"><ele>7.0</ele><time>2026-04-28T14:52:35.913Z</time></trkpt><trkpt lat="39.69319203554" lon="9.653080858339287"><ele>7.0</ele><time>2026-04-28T14:52:36.913Z</time></trkpt><trkpt lat="39.69330283651398" lon="9.653196087938912"><ele>7.0</ele><time>2026-04-28T14:52:37.913Z</time></trkpt><trkpt lat="39.69341652870242" lon="9.65331205473705"><ele>7.0</ele><time>2026-04-28T14:52:38.913Z</time></trkpt><trkpt lat="39.69352693809352" lon="9.65342972774637"><ele>7.0</ele><time>2026-04-28T14:52:39.913Z</time></trkpt><trkpt lat="39.6936359277304" lon="9.653548471302237"><ele>7.199999999999999</ele><time>2026-04-28T14:52:40.913Z</time></trkpt><trkpt lat="39.6937344245076" lon="9.653659534520488"><ele>7.3999999999999995</ele><time>2026-04-28T14:52:41.913Z</time></trkpt><trkpt lat="39.69382717494541" lon="9.65375831586401"><ele>7.6000000000000005</ele><time>2026-04-28T14:52:42.913Z</time></trkpt><trkpt lat="39.69390448510115" lon="9.653843395012288"><ele>7.800000000000001</ele><time>2026-04-28T14:52:43.913Z</time></trkpt><trkpt lat="39.693959201683676" lon="9.653911678052165"><ele>8.0</ele><time>2026-04-28T14:52:44.913Z</time></trkpt><trkpt lat="39.69400314109214" lon="9.653991539328265"><ele>8.0</ele><time>2026-04-28T14:52:46.913Z</time></trkpt><trkpt lat="39.69391614223762" lon="9.654051598284981"><ele>8.0</ele><time>2026-04-28T14:52:49.913Z</time></trkpt><trkpt lat="39.69382447148861" lon="9.65417132912657"><ele>8.0</ele><time>2026-04-28T14:52:51.913Z</time></trkpt><trkpt lat="39.69375811998854" lon="9.654257990586245"><ele>8.0</ele><time>2026-04-28T14:52:52.913Z</time></trkpt><trkpt lat="39.693692798587314" lon="9.654341376258328"><ele>8.0</ele><time>2026-04-28T14:52:53.913Z</time></trkpt><trkpt lat="39.693627981488206" lon="9.654423767574547"><ele>7.6000000000000005</ele><time>2026-04-28T14:52:54.913Z</time></trkpt><trkpt lat="39.69355590749282" lon="9.65451092807119"><ele>7.200000000000001</ele><time>2026-04-28T14:52:55.913Z</time></trkpt><trkpt lat="39.69348636426885" lon="9.654593252579602"><ele>6.8</ele><time>2026-04-28T14:52:56.913Z</time></trkpt><trkpt lat="39.69342825332286" lon="9.654691243477279"><ele>6.4</ele><time>2026-04-28T14:52:57.913Z</time></trkpt><trkpt lat="39.693350502820635" lon="9.654760068347484"><ele>6.0</ele><time>2026-04-28T14:52:58.914Z</time></trkpt><trkpt lat="39.693285178872664" lon="9.654840400342104"><ele>6.0</ele><time>2026-04-28T14:52:59.914Z</time></trkpt><trkpt lat="39.693229352569354" lon="9.654901689434668"><ele>6.0</ele><time>2026-04-28T14:53:00.914Z</time></trkpt><trkpt lat="39.693202457051164" lon="9.655034134585446"><ele>6.0</ele><time>2026-04-28T14:53:02.914Z</time></trkpt><trkpt lat="39.693252440329054" lon="9.655183378931739"><ele>6.0</ele><time>2026-04-28T14:53:04.914Z</time></trkpt><trkpt lat="39.6932910603581" lon="9.655274374820086"><ele>6.0</ele><time>2026-04-28T14:53:05.914Z</time></trkpt><trkpt lat="39.693349051037366" lon="9.655372567666987"><ele>6.75</ele><time>2026-04-28T14:53:06.914Z</time></trkpt><trkpt lat="39.693410763863355" lon="9.655489299596475"><ele>7.5</ele><time>2026-04-28T14:53:07.914Z</time></trkpt><trkpt lat="39.693472344106716" lon="9.65561710348537"><ele>8.25</ele><time>2026-04-28T14:53:08.914Z</time></trkpt><trkpt lat="39.693533327782376" lon="9.655756092288454"><ele>9.0</ele><time>2026-04-28T14:53:09.914Z</time></trkpt><trkpt lat="39.69359302457378" lon="9.655901763670123"><ele>9.0</ele><time>2026-04-28T14:53:10.914Z</time></trkpt><trkpt lat="39.69363486639073" lon="9.656048864044331"><ele>9.0</ele><time>2026-04-28T14:53:11.914Z</time></trkpt><trkpt lat="39.69366088752473" lon="9.656192908912082"><ele>9.0</ele><time>2026-04-28T14:53:12.914Z</time></trkpt><trkpt lat="39.693669862565876" lon="9.656351050901307"><ele>9.0</ele><time>2026-04-28T14:53:13.914Z</time></trkpt><trkpt lat="39.69367831860626" lon="9.656493276938615"><ele>8.2</ele><time>2026-04-28T14:53:14.914Z</time></trkpt><trkpt lat="39.6936846761563" lon="9.656624272610026"><ele>7.4</ele><time>2026-04-28T14:53:15.914Z</time></trkpt><trkpt lat="39.69370071497978" lon="9.656753784108792"><ele>6.6</ele><time>2026-04-28T14:53:16.914Z</time></trkpt><trkpt lat="39.693705391840865" lon="9.656892467532089"><ele>5.8</ele><time>2026-04-28T14:53:17.914Z</time></trkpt><trkpt lat="39.69372791090935" lon="9.657037183635914"><ele>5.0</ele><time>2026-04-28T14:53:18.914Z</time></trkpt><trkpt lat="39.693755813811975" lon="9.657174565618007"><ele>4.6</ele><time>2026-04-28T14:53:19.914Z</time></trkpt><trkpt lat="39.693773481728094" lon="9.657297958274054"><ele>4.2</ele><time>2026-04-28T14:53:20.914Z</time></trkpt><trkpt lat="39.69379759956857" lon="9.657425891102086"><ele>3.8</ele><time>2026-04-28T14:53:21.914Z</time></trkpt><trkpt lat="39.69380413469472" lon="9.657546351400658"><ele>3.4</ele><time>2026-04-28T14:53:22.914Z</time></trkpt><trkpt lat="39.69378855250657" lon="9.65766295952387"><ele>3.0</ele><time>2026-04-28T14:53:23.914Z</time></trkpt><trkpt lat="39.69378456224571" lon="9.65776363355227"><ele>2.9999999999999996</ele><time>2026-04-28T14:53:24.914Z</time></trkpt><trkpt lat="39.69377668012326" lon="9.65789447566675"><ele>3.0</ele><time>2026-04-28T14:53:26.914Z</time></trkpt><trkpt lat="39.69377094963613" lon="9.657981556228176"><ele>3.0</ele><time>2026-04-28T14:53:29.914Z</time></trkpt><trkpt lat="39.69375506682969" lon="9.658061887991076"><ele>3.0</ele><time>2026-04-28T14:57:37.916Z</time></trkpt><trkpt lat="39.69377112861274" lon="9.658165489596978"><ele>3.0</ele><time>2026-04-28T14:57:43.916Z</time></trkpt><trkpt lat="39.69373267393604" lon="9.658231102187065"><ele>2.9999999999999996</ele><time>2026-04-28T14:57:52.917Z</time></trkpt><trkpt lat="39.69369788406815" lon="9.658313440994405"><ele>3.0</ele><time>2026-04-28T14:57:57.917Z</time></trkpt><trkpt lat="39.69366113064032" lon="9.658395580021114"><ele>2.9999999999999996</ele><time>2026-04-28T14:58:04.917Z</time></trkpt><trkpt lat="39.69363659119986" lon="9.658475325120934"><ele>3.0</ele><time>2026-04-28T14:58:10.917Z</time></trkpt><trkpt lat="39.693600266996306" lon="9.658544039279262"><ele>3.0</ele><time>2026-04-28T14:58:18.916Z</time></trkpt><trkpt lat="39.69356425145435" lon="9.658624336357223"><ele>3.0</ele><time>2026-04-28T14:58:26.915Z</time></trkpt><trkpt lat="39.693534980394226" lon="9.65870412011516"><ele>3.0</ele><time>2026-04-28T14:58:34.915Z</time></trkpt><trkpt lat="39.69349375243895" lon="9.658774960470966"><ele>2.9999999999999996</ele><time>2026-04-28T14:58:40.915Z</time></trkpt><trkpt lat="39.693437700411046" lon="9.658824692557742"><ele>3.0</ele><time>2026-04-28T14:58:48.916Z</time></trkpt><trkpt lat="39.69337714939545" lon="9.65887461988611"><ele>2.571428571428571</ele><time>2026-04-28T14:59:22.916Z</time></trkpt><trkpt lat="39.69330996250089" lon="9.6588946458455"><ele>2.142857142857143</ele><time>2026-04-28T14:59:30.916Z</time></trkpt><trkpt lat="39.69324158636447" lon="9.658906890357985"><ele>1.7142857142857142</ele><time>2026-04-28T14:59:56.917Z</time></trkpt><trkpt lat="39.69318041935282" lon="9.658931678173941"><ele>1.2857142857142856</ele><time>2026-04-28T15:00:03.917Z</time></trkpt><trkpt lat="39.69311781383449" lon="9.65895687617565"><ele>0.8571428571428571</ele><time>2026-04-28T15:00:20.913Z</time></trkpt><trkpt lat="39.693112396671474" lon="9.658870938727421"><ele>0.42857142857142855</ele><time>2026-04-28T15:00:50.908Z</time></trkpt><trkpt lat="39.69304724107144" lon="9.658894251528494"><ele>0.0</ele><time>2026-04-28T15:01:07.908Z</time></trkpt><trkpt lat="39.693005365408204" lon="9.658832302960073"><ele>0.0</ele><time>2026-04-28T15:01:33.908Z</time></trkpt><trkpt lat="39.6929973529557" lon="9.658694734050767"><ele>0.0</ele><time>2026-04-28T15:02:54.907Z</time></trkpt><trkpt lat="39.693013468852264" lon="9.658786531943559"><ele>0.0</ele><time>2026-04-28T15:04:11.909Z</time></trkpt><trkpt lat="39.69301150890315" lon="9.658870323746031"><ele>0.0</ele><time>2026-04-28T16:11:04.938Z</time></trkpt><trkpt lat="39.69307873921806" lon="9.658860687820162"><ele>0.0</ele><time>2026-04-28T16:11:17.938Z</time></trkpt><trkpt lat="39.69316777762636" lon="9.658901429936556"><ele>0.0</ele><time>2026-04-28T16:11:43.938Z</time></trkpt><trkpt lat="39.693237378667455" lon="9.658895995963812"><ele>0.0</ele><time>2026-04-28T16:12:06.937Z</time></trkpt><trkpt lat="39.69330523256765" lon="9.658867894625777"><ele>0.0</ele><time>2026-04-28T16:12:22.937Z</time></trkpt><trkpt lat="39.69336505431741" lon="9.65884098891795"><ele>0.0</ele><time>2026-04-28T16:12:32.938Z</time></trkpt><trkpt lat="39.69342133649013" lon="9.658792249799108"><ele>0.0</ele><time>2026-04-28T16:12:39.938Z</time></trkpt><trkpt lat="39.69347310272368" lon="9.658740967457582"><ele>0.0</ele><time>2026-04-28T16:12:59.938Z</time></trkpt><trkpt lat="39.69351689722112" lon="9.658677949663991"><ele>0.0</ele><time>2026-04-28T16:13:07.938Z</time></trkpt><trkpt lat="39.693552651133594" lon="9.658607886159423"><ele>0.0</ele><time>2026-04-28T16:13:15.938Z</time></trkpt><trkpt lat="39.69358778919906" lon="9.65853814136055"><ele>0.42857142857142855</ele><time>2026-04-28T16:13:23.938Z</time></trkpt><trkpt lat="39.69361367674437" lon="9.658458734020957"><ele>0.8571428571428571</ele><time>2026-04-28T16:13:31.939Z</time></trkpt><trkpt lat="39.69364181303097" lon="9.658382960535596"><ele>1.2857142857142856</ele><time>2026-04-28T16:13:40.939Z</time></trkpt><trkpt lat="39.693678221136594" lon="9.658305420212084"><ele>1.7142857142857142</ele><time>2026-04-28T16:13:50.939Z</time></trkpt><trkpt lat="39.693714397142664" lon="9.658232776499533"><ele>2.142857142857143</ele><time>2026-04-28T16:13:59.939Z</time></trkpt><trkpt lat="39.69374835634375" lon="9.658154793267535"><ele>2.571428571428571</ele><time>2026-04-28T16:14:07.939Z</time></trkpt><trkpt lat="39.693769325249505" lon="9.658070992726458"><ele>3.0</ele><time>2026-04-28T16:14:16.939Z</time></trkpt><trkpt lat="39.69375833053445" lon="9.65798698385062"><ele>3.0</ele><time>2026-04-28T16:14:26.939Z</time></trkpt><trkpt lat="39.693767601363454" lon="9.657897529594532"><ele>3.0</ele><time>2026-04-28T16:23:09.951Z</time></trkpt><trkpt lat="39.69378076971253" lon="9.65779479260849"><ele>3.0</ele><time>2026-04-28T16:23:11.951Z</time></trkpt><trkpt lat="39.69380143711713" lon="9.657641397326127"><ele>3.0</ele><time>2026-04-28T16:23:13.951Z</time></trkpt><trkpt lat="39.69379996988542" lon="9.657537008584788"><ele>3.0</ele><time>2026-04-28T16:23:14.951Z</time></trkpt><trkpt lat="39.69381641762921" lon="9.657411494522627"><ele>3.0</ele><time>2026-04-28T16:23:15.951Z</time></trkpt><trkpt lat="39.693804875658806" lon="9.657278635029337"><ele>3.0</ele><time>2026-04-28T16:23:16.951Z</time></trkpt><trkpt lat="39.69377553405279" lon="9.657147616036273"><ele>3.0</ele><time>2026-04-28T16:23:17.951Z</time></trkpt><trkpt lat="39.693754420452834" lon="9.657003776437973"><ele>3.0</ele><time>2026-04-28T16:23:18.951Z</time></trkpt><trkpt lat="39.6937401868567" lon="9.65686011803129"><ele>3.0</ele><time>2026-04-28T16:23:19.951Z</time></trkpt><trkpt lat="39.69372520194436" lon="9.656729196096935"><ele>3.0</ele><time>2026-04-28T16:23:20.951Z</time></trkpt><trkpt lat="39.69371225951223" lon="9.656603531066256"><ele>3.4</ele><time>2026-04-28T16:23:21.951Z</time></trkpt><trkpt lat="39.693699704326676" lon="9.656461738554087"><ele>3.8</ele><time>2026-04-28T16:23:22.951Z</time></trkpt><trkpt lat="39.69368805019782" lon="9.656313799107034"><ele>4.2</ele><time>2026-04-28T16:23:23.951Z</time></trkpt><trkpt lat="39.693673431292915" lon="9.656173522512008"><ele>4.6</ele><time>2026-04-28T16:23:24.951Z</time></trkpt><trkpt lat="39.69365324784612" lon="9.656062718255702"><ele>5.0</ele><time>2026-04-28T16:23:25.951Z</time></trkpt><trkpt lat="39.69362048258694" lon="9.65596014398826"><ele>5.666666666666667</ele><time>2026-04-28T16:23:26.951Z</time></trkpt><trkpt lat="39.69359981210752" lon="9.65584495748457"><ele>6.333333333333334</ele><time>2026-04-28T16:23:27.951Z</time></trkpt><trkpt lat="39.69354119799472" lon="9.655754198436517"><ele>7.0</ele><time>2026-04-28T16:23:28.951Z</time></trkpt><trkpt lat="39.693503815468" lon="9.655662498215422"><ele>7.666666666666667</ele><time>2026-04-28T16:23:29.951Z</time></trkpt><trkpt lat="39.69347725505394" lon="9.655568249106"><ele>8.333333333333334</ele><time>2026-04-28T16:23:30.951Z</time></trkpt><trkpt lat="39.69344080787381" lon="9.655499020260454"><ele>9.0</ele><time>2026-04-28T16:23:31.951Z</time></trkpt><trkpt lat="39.6933986654834" lon="9.655420835175597"><ele>9.166666666666666</ele><time>2026-04-28T16:23:32.951Z</time></trkpt><trkpt lat="39.69335988183419" lon="9.655345919544157"><ele>9.333333333333334</ele><time>2026-04-28T16:23:33.951Z</time></trkpt><trkpt lat="39.69332394053775" lon="9.655274873380893"><ele>9.5</ele><time>2026-04-28T16:23:34.951Z</time></trkpt><trkpt lat="39.69326877854587" lon="9.655150129886993"><ele>9.666666666666668</ele><time>2026-04-28T16:23:36.951Z</time></trkpt><trkpt lat="39.69324683466708" lon="9.655046833075922"><ele>9.833333333333334</ele><time>2026-04-28T16:23:38.951Z</time></trkpt><trkpt lat="39.69325717169594" lon="9.654936314274575"><ele>10.0</ele><time>2026-04-28T16:23:40.951Z</time></trkpt><trkpt lat="39.69334195747082" lon="9.654817135306141"><ele>9.833333333333334</ele><time>2026-04-28T16:23:42.951Z</time></trkpt><trkpt lat="39.69340104949895" lon="9.65477353005205"><ele>9.666666666666668</ele><time>2026-04-28T16:23:43.951Z</time></trkpt><trkpt lat="39.693487655815346" lon="9.65466508911293"><ele>9.5</ele><time>2026-04-28T16:23:45.951Z</time></trkpt><trkpt lat="39.69353871270427" lon="9.654601515046663"><ele>9.333333333333334</ele><time>2026-04-28T16:23:46.951Z</time></trkpt><trkpt lat="39.69359253403708" lon="9.65452999032272"><ele>9.166666666666666</ele><time>2026-04-28T16:23:47.951Z</time></trkpt><trkpt lat="39.693646841944734" lon="9.654458053011412"><ele>9.0</ele><time>2026-04-28T16:23:48.951Z</time></trkpt><trkpt lat="39.693705917990705" lon="9.654377074038717"><ele>8.833333333333334</ele><time>2026-04-28T16:23:49.951Z</time></trkpt><trkpt lat="39.693766556468915" lon="9.654297340599499"><ele>8.666666666666666</ele><time>2026-04-28T16:23:50.951Z</time></trkpt><trkpt lat="39.69382911738762" lon="9.654218258647068"><ele>8.5</ele><time>2026-04-28T16:23:51.951Z</time></trkpt><trkpt lat="39.693891367272784" lon="9.654147319614141"><ele>8.333333333333332</ele><time>2026-04-28T16:23:52.951Z</time></trkpt><trkpt lat="39.69397214790173" lon="9.654050514032004"><ele>8.166666666666666</ele><time>2026-04-28T16:23:54.951Z</time></trkpt><trkpt lat="39.69401558380367" lon="9.65397813367489"><ele>8.0</ele><time>2026-04-28T16:23:59.951Z</time></trkpt><trkpt lat="39.693948054764434" lon="9.653870163163877"><ele>8.0</ele><time>2026-04-28T16:24:00.951Z</time></trkpt><trkpt lat="39.69390256895092" lon="9.653810794950049"><ele>8.0</ele><time>2026-04-28T16:24:01.952Z</time></trkpt><trkpt lat="39.693839510276476" lon="9.653746492781178"><ele>8.0</ele><time>2026-04-28T16:24:02.952Z</time></trkpt><trkpt lat="39.69376668551343" lon="9.653668063875896"><ele>8.0</ele><time>2026-04-28T16:24:03.952Z</time></trkpt><trkpt lat="39.69368893253022" lon="9.653582910376526"><ele>8.0</ele><time>2026-04-28T16:24:04.952Z</time></trkpt><trkpt lat="39.693605369572836" lon="9.65348844725611"><ele>7.75</ele><time>2026-04-28T16:24:05.952Z</time></trkpt><trkpt lat="39.6935200957127" lon="9.65339016187977"><ele>7.5</ele><time>2026-04-28T16:24:06.952Z</time></trkpt><trkpt lat="39.693434518215035" lon="9.653292496995828"><ele>7.25</ele><time>2026-04-28T16:24:07.952Z</time></trkpt><trkpt lat="39.693345530613115" lon="9.65319104635328"><ele>7.0</ele><time>2026-04-28T16:24:08.952Z</time></trkpt><trkpt lat="39.69325435693102" lon="9.653084902955902"><ele>7.0</ele><time>2026-04-28T16:24:09.952Z</time></trkpt><trkpt lat="39.693164376336014" lon="9.652982697254348"><ele>7.0</ele><time>2026-04-28T16:24:10.952Z</time></trkpt><trkpt lat="39.69308030929152" lon="9.652883796272553"><ele>7.0</ele><time>2026-04-28T16:24:11.952Z</time></trkpt><trkpt lat="39.69300270535463" lon="9.652781684311627"><ele>7.0</ele><time>2026-04-28T16:24:12.952Z</time></trkpt><trkpt lat="39.69293008487985" lon="9.65266813044919"><ele>7.0</ele><time>2026-04-28T16:24:13.952Z</time></trkpt><trkpt lat="39.69286502971027" lon="9.652543560934477"><ele>7.0</ele><time>2026-04-28T16:24:14.952Z</time></trkpt><trkpt lat="39.6928111461422" lon="9.65240545820775"><ele>7.0</ele><time>2026-04-28T16:24:15.952Z</time></trkpt><trkpt lat="39.692773354163535" lon="9.652259659815448"><ele>7.0</ele><time>2026-04-28T16:24:16.952Z</time></trkpt><trkpt lat="39.69274929230395" lon="9.652108424189198"><ele>7.0</ele><time>2026-04-28T16:24:17.952Z</time></trkpt><trkpt lat="39.69273640965056" lon="9.651954793979627"><ele>7.0</ele><time>2026-04-28T16:24:18.952Z</time></trkpt><trkpt lat="39.69272957000194" lon="9.651797797383404"><ele>7.0</ele><time>2026-04-28T16:24:19.952Z</time></trkpt><trkpt lat="39.69272911902065" lon="9.651645763434212"><ele>7.0</ele><time>2026-04-28T16:24:20.952Z</time></trkpt><trkpt lat="39.69272914778802" lon="9.651491999857708"><ele>7.0</ele><time>2026-04-28T16:24:21.952Z</time></trkpt><trkpt lat="39.69272374376593" lon="9.651333537095146"><ele>7.0</ele><time>2026-04-28T16:24:22.952Z</time></trkpt><trkpt lat="39.69273117931404" lon="9.651177978319206"><ele>7.0</ele><time>2026-04-28T16:24:23.952Z</time></trkpt><trkpt lat="39.69271383400219" lon="9.651016348900349"><ele>7.0</ele><time>2026-04-28T16:24:24.952Z</time></trkpt><trkpt lat="39.69269136544757" lon="9.650856982039354"><ele>7.25</ele><time>2026-04-28T16:24:25.952Z</time></trkpt><trkpt lat="39.69266913210977" lon="9.65070120136916"><ele>7.5</ele><time>2026-04-28T16:24:26.951Z</time></trkpt><trkpt lat="39.69264798585168" lon="9.650542297365533"><ele>7.75</ele><time>2026-04-28T16:24:27.952Z</time></trkpt><trkpt lat="39.6926249401029" lon="9.650377804664119"><ele>8.0</ele><time>2026-04-28T16:24:28.952Z</time></trkpt><trkpt lat="39.69260288129218" lon="9.65021138909408"><ele>8.0</ele><time>2026-04-28T16:24:29.952Z</time></trkpt><trkpt lat="39.692581285207524" lon="9.650049155892297"><ele>8.0</ele><time>2026-04-28T16:24:30.952Z</time></trkpt><trkpt lat="39.69256768578614" lon="9.649887881862467"><ele>8.0</ele><time>2026-04-28T16:24:31.952Z</time></trkpt><trkpt lat="39.69256389112002" lon="9.649725365487287"><ele>8.0</ele><time>2026-04-28T16:24:32.952Z</time></trkpt><trkpt lat="39.69256864985072" lon="9.64956041359902"><ele>8.5</ele><time>2026-04-28T16:24:33.952Z</time></trkpt><trkpt lat="39.69258098780067" lon="9.649389727035041"><ele>9.0</ele><time>2026-04-28T16:24:34.952Z</time></trkpt><trkpt lat="39.69260403285283" lon="9.649212213664397"><ele>9.5</ele><time>2026-04-28T16:24:35.952Z</time></trkpt><trkpt lat="39.692620644873024" lon="9.649036729257253"><ele>10.0</ele><time>2026-04-28T16:24:36.952Z</time></trkpt><trkpt lat="39.69263668424087" lon="9.648866140894745"><ele>10.0</ele><time>2026-04-28T16:24:37.952Z</time></trkpt><trkpt lat="39.692648644015" lon="9.648699951660511"><ele>10.0</ele><time>2026-04-28T16:24:38.952Z</time></trkpt><trkpt lat="39.692671801507345" lon="9.648537568124699"><ele>10.0</ele><time>2026-04-28T16:24:39.952Z</time></trkpt><trkpt lat="39.69270246705869" lon="9.648368943238594"><ele>10.0</ele><time>2026-04-28T16:24:40.952Z</time></trkpt><trkpt lat="39.692736963886595" lon="9.648201912200989"><ele>10.75</ele><time>2026-04-28T16:24:41.953Z</time></trkpt><trkpt lat="39.69278208311938" lon="9.648036754590827"><ele>11.5</ele><time>2026-04-28T16:24:42.953Z</time></trkpt><trkpt lat="39.69282951759954" lon="9.647869401910812"><ele>12.25</ele><time>2026-04-28T16:24:43.953Z</time></trkpt><trkpt lat="39.69288419798636" lon="9.647698364467727"><ele>13.0</ele><time>2026-04-28T16:24:44.953Z</time></trkpt><trkpt lat="39.69293750385524" lon="9.647528143762933"><ele>13.0</ele><time>2026-04-28T16:24:45.953Z</time></trkpt><trkpt lat="39.69298792246348" lon="9.647356517860521"><ele>13.0</ele><time>2026-04-28T16:24:46.953Z</time></trkpt><trkpt lat="39.69303362155029" lon="9.647179298301776"><ele>13.0</ele><time>2026-04-28T16:24:47.953Z</time></trkpt><trkpt lat="39.693091353576776" lon="9.64701096405254"><ele>13.0</ele><time>2026-04-28T16:24:48.953Z</time></trkpt><trkpt lat="39.69312484388026" lon="9.646825623075838"><ele>13.666666666666666</ele><time>2026-04-28T16:24:49.953Z</time></trkpt><trkpt lat="39.69315215813786" lon="9.646634588490693"><ele>14.333333333333332</ele><time>2026-04-28T16:24:50.953Z</time></trkpt><trkpt lat="39.6931809105853" lon="9.6464433680058"><ele>15.0</ele><time>2026-04-28T16:24:51.953Z</time></trkpt><trkpt lat="39.69320994614285" lon="9.646243002857375"><ele>15.333333333333332</ele><time>2026-04-28T16:24:52.953Z</time></trkpt><trkpt lat="39.693240740646914" lon="9.646041710956878"><ele>15.666666666666666</ele><time>2026-04-28T16:24:53.953Z</time></trkpt><trkpt lat="39.69327367959836" lon="9.645836188392444"><ele>16.0</ele><time>2026-04-28T16:24:54.953Z</time></trkpt><trkpt lat="39.69330477922587" lon="9.645631831120472"><ele>16.0</ele><time>2026-04-28T16:24:55.953Z</time></trkpt><trkpt lat="39.69333186681572" lon="9.645430947780765"><ele>16.0</ele><time>2026-04-28T16:24:56.953Z</time></trkpt><trkpt lat="39.693353152349644" lon="9.64523530377116"><ele>16.0</ele><time>2026-04-28T16:24:57.953Z</time></trkpt><trkpt lat="39.69336079103065" lon="9.645038446092972"><ele>16.25</ele><time>2026-04-28T16:24:58.953Z</time></trkpt><trkpt lat="39.693359735749766" lon="9.644846806211769"><ele>16.5</ele><time>2026-04-28T16:24:59.953Z</time></trkpt><trkpt lat="39.69335000774673" lon="9.64465716550485"><ele>16.75</ele><time>2026-04-28T16:25:00.953Z</time></trkpt><trkpt lat="39.69334120710023" lon="9.644473087333267"><ele>17.0</ele><time>2026-04-28T16:25:01.953Z</time></trkpt><trkpt lat="39.6933349767084" lon="9.644288046279048"><ele>17.25</ele><time>2026-04-28T16:25:02.953Z</time></trkpt><trkpt lat="39.69332572109515" lon="9.644102949174762"><ele>17.5</ele><time>2026-04-28T16:25:03.953Z</time></trkpt><trkpt lat="39.69331721822316" lon="9.643915245288525"><ele>17.75</ele><time>2026-04-28T16:25:04.953Z</time></trkpt><trkpt lat="39.69331720042443" lon="9.643725306754732"><ele>18.0</ele><time>2026-04-28T16:25:05.953Z</time></trkpt><trkpt lat="39.69333384781271" lon="9.643533379579639"><ele>18.666666666666668</ele><time>2026-04-28T16:25:06.953Z</time></trkpt><trkpt lat="39.69335859333142" lon="9.643333969210863"><ele>19.333333333333336</ele><time>2026-04-28T16:25:07.953Z</time></trkpt><trkpt lat="39.693388623538034" lon="9.643131131016553"><ele>20.0</ele><time>2026-04-28T16:25:08.953Z</time></trkpt><trkpt lat="39.69341514733725" lon="9.642924275831788"><ele>20.333333333333336</ele><time>2026-04-28T16:25:09.953Z</time></trkpt><trkpt lat="39.693439817560716" lon="9.642715693133573"><ele>20.666666666666668</ele><time>2026-04-28T16:25:10.953Z</time></trkpt><trkpt lat="39.69345928391946" lon="9.642503012086024"><ele>21.0</ele><time>2026-04-28T16:25:11.953Z</time></trkpt><trkpt lat="39.69347162879815" lon="9.642290634607619"><ele>21.0</ele><time>2026-04-28T16:25:12.953Z</time></trkpt><trkpt lat="39.693472794419705" lon="9.642078616616674"><ele>21.0</ele><time>2026-04-28T16:25:13.953Z</time></trkpt><trkpt lat="39.69346555415073" lon="9.641892367982903"><ele>21.0</ele><time>2026-04-28T16:25:14.953Z</time></trkpt><trkpt lat="39.69345171704996" lon="9.641726502679878"><ele>21.0</ele><time>2026-04-28T16:25:15.953Z</time></trkpt><trkpt lat="39.69344138530596" lon="9.641572726028157"><ele>21.75</ele><time>2026-04-28T16:25:16.953Z</time></trkpt><trkpt lat="39.69342975584949" lon="9.641436997865654"><ele>22.5</ele><time>2026-04-28T16:25:17.953Z</time></trkpt><trkpt lat="39.693412981000094" lon="9.641284017660373"><ele>23.25</ele><time>2026-04-28T16:25:18.953Z</time></trkpt><trkpt lat="39.693392252842" lon="9.641120589204586"><ele>24.0</ele><time>2026-04-28T16:25:19.953Z</time></trkpt><trkpt lat="39.693370508579136" lon="9.640941639187725"><ele>25.0</ele><time>2026-04-28T16:25:20.953Z</time></trkpt><trkpt lat="39.693348240440244" lon="9.640742128912754"><ele>26.0</ele><time>2026-04-28T16:25:21.953Z</time></trkpt><trkpt lat="39.69332451861971" lon="9.640541391900314"><ele>27.0</ele><time>2026-04-28T16:25:22.953Z</time></trkpt><trkpt lat="39.69330045567544" lon="9.640346814806096"><ele>28.0</ele><time>2026-04-28T16:25:23.953Z</time></trkpt><trkpt lat="39.693283958826704" lon="9.64017743098526"><ele>29.0</ele><time>2026-04-28T16:25:24.953Z</time></trkpt><trkpt lat="39.6932838585605" lon="9.640020225636285"><ele>30.0</ele><time>2026-04-28T16:25:25.953Z</time></trkpt><trkpt lat="39.69329175343692" lon="9.639855114397466"><ele>31.0</ele><time>2026-04-28T16:25:26.953Z</time></trkpt><trkpt lat="39.69330057494865" lon="9.639682039237323"><ele>31.0</ele><time>2026-04-28T16:25:27.953Z</time></trkpt><trkpt lat="39.69331008792795" lon="9.639503434246372"><ele>31.0</ele><time>2026-04-28T16:25:28.953Z</time></trkpt><trkpt lat="39.693326721642975" lon="9.6393181888385"><ele>31.0</ele><time>2026-04-28T16:25:29.953Z</time></trkpt><trkpt lat="39.6933453571501" lon="9.63912778131446"><ele>31.0</ele><time>2026-04-28T16:25:30.953Z</time></trkpt><trkpt lat="39.69336871637006" lon="9.638944526185872"><ele>32.0</ele><time>2026-04-28T16:25:31.953Z</time></trkpt><trkpt lat="39.69338710255231" lon="9.638757949991728"><ele>33.0</ele><time>2026-04-28T16:25:32.953Z</time></trkpt><trkpt lat="39.69340474415849" lon="9.638576879225552"><ele>34.0</ele><time>2026-04-28T16:25:33.953Z</time></trkpt><trkpt lat="39.69342069617037" lon="9.638392276276445"><ele>35.0</ele><time>2026-04-28T16:25:34.954Z</time></trkpt><trkpt lat="39.693427815110745" lon="9.638206710387115"><ele>35.5</ele><time>2026-04-28T16:25:35.954Z</time></trkpt><trkpt lat="39.69342434643922" lon="9.638023344200388"><ele>36.0</ele><time>2026-04-28T16:25:36.954Z</time></trkpt><trkpt lat="39.69341427513421" lon="9.637840405078236"><ele>36.5</ele><time>2026-04-28T16:25:37.954Z</time></trkpt><trkpt lat="39.693410800706786" lon="9.637677058440843"><ele>37.0</ele><time>2026-04-28T16:25:38.954Z</time></trkpt><trkpt lat="39.69341369338966" lon="9.637525550948984"><ele>37.4</ele><time>2026-04-28T16:25:39.954Z</time></trkpt><trkpt lat="39.69342349282293" lon="9.63738342485984"><ele>37.800000000000004</ele><time>2026-04-28T16:25:40.954Z</time></trkpt><trkpt lat="39.69344722659569" lon="9.637249488494481"><ele>38.2</ele><time>2026-04-28T16:25:41.954Z</time></trkpt><trkpt lat="39.69348940785878" lon="9.637121829560986"><ele>38.6</ele><time>2026-04-28T16:25:42.954Z</time></trkpt><trkpt lat="39.693552230680375" lon="9.637007734785453"><ele>39.0</ele><time>2026-04-28T16:25:43.954Z</time></trkpt><trkpt lat="39.69363597978759" lon="9.636903399881914"><ele>40.0</ele><time>2026-04-28T16:25:44.954Z</time></trkpt><trkpt lat="39.69373870521744" lon="9.636799818824256"><ele>41.0</ele><time>2026-04-28T16:25:45.954Z</time></trkpt><trkpt lat="39.693850666789196" lon="9.63668919058929"><ele>42.0</ele><time>2026-04-28T16:25:46.954Z</time></trkpt><trkpt lat="39.693963055374546" lon="9.636580411696464"><ele>43.0</ele><time>2026-04-28T16:25:47.954Z</time></trkpt><trkpt lat="39.69407098678603" lon="9.636479061836178"><ele>43.0</ele><time>2026-04-28T16:25:48.954Z</time></trkpt><trkpt lat="39.69417664281968" lon="9.636398160000741"><ele>43.0</ele><time>2026-04-28T16:25:49.954Z</time></trkpt><trkpt lat="39.69429157181365" lon="9.63632602829551"><ele>43.0</ele><time>2026-04-28T16:25:50.954Z</time></trkpt><trkpt lat="39.694422574857484" lon="9.636251766433814"><ele>43.0</ele><time>2026-04-28T16:25:51.954Z</time></trkpt><trkpt lat="39.69455636503433" lon="9.636156978131085"><ele>43.333333333333336</ele><time>2026-04-28T16:25:52.954Z</time></trkpt><trkpt lat="39.694690747376285" lon="9.636049546151623"><ele>43.666666666666664</ele><time>2026-04-28T16:25:53.954Z</time></trkpt><trkpt lat="39.69481919407358" lon="9.635929841035738"><ele>44.0</ele><time>2026-04-28T16:25:54.954Z</time></trkpt><trkpt lat="39.69494432767398" lon="9.63579336424667"><ele>44.0</ele><time>2026-04-28T16:25:55.954Z</time></trkpt><trkpt lat="39.69506521882367" lon="9.635648168761211"><ele>44.0</ele><time>2026-04-28T16:25:56.954Z</time></trkpt><trkpt lat="39.69518136820747" lon="9.63550296555158"><ele>44.0</ele><time>2026-04-28T16:25:57.954Z</time></trkpt><trkpt lat="39.69529563735707" lon="9.635361223280434"><ele>43.75</ele><time>2026-04-28T16:25:58.954Z</time></trkpt><trkpt lat="39.69539693615215" lon="9.635230430922116"><ele>43.5</ele><time>2026-04-28T16:25:59.954Z</time></trkpt><trkpt lat="39.69549844112155" lon="9.635107817260009"><ele>43.25</ele><time>2026-04-28T16:26:00.954Z</time></trkpt><trkpt lat="39.695573486854066" lon="9.634952269429249"><ele>43.0</ele><time>2026-04-28T16:26:01.954Z</time></trkpt><trkpt lat="39.69561700224408" lon="9.634776441167862"><ele>43.0</ele><time>2026-04-28T16:26:02.954Z</time></trkpt><trkpt lat="39.695667975967275" lon="9.634586955139634"><ele>43.0</ele><time>2026-04-28T16:26:03.954Z</time></trkpt><trkpt lat="39.69571711860631" lon="9.634391656184699"><ele>43.0</ele><time>2026-04-28T16:26:04.954Z</time></trkpt><trkpt lat="39.69577162931371" lon="9.6341937434217"><ele>44.66666666666667</ele><time>2026-04-28T16:26:05.954Z</time></trkpt><trkpt lat="39.69582718529605" lon="9.633994578628558"><ele>46.333333333333336</ele><time>2026-04-28T16:26:06.954Z</time></trkpt><trkpt lat="39.69588059115991" lon="9.633790914422017"><ele>48.0</ele><time>2026-04-28T16:26:07.954Z</time></trkpt><trkpt lat="39.695926749623034" lon="9.63358663975432"><ele>50.0</ele><time>2026-04-28T16:26:08.954Z</time></trkpt><trkpt lat="39.695969879513555" lon="9.633378193430026"><ele>52.0</ele><time>2026-04-28T16:26:09.954Z</time></trkpt><trkpt lat="39.69600842040715" lon="9.633172782383367"><ele>54.0</ele><time>2026-04-28T16:26:10.954Z</time></trkpt><trkpt lat="39.69604636010948" lon="9.63296394345744"><ele>53.33333333333333</ele><time>2026-04-28T16:26:11.954Z</time></trkpt><trkpt lat="39.696082220801756" lon="9.632747191001494"><ele>52.666666666666664</ele><time>2026-04-28T16:26:12.954Z</time></trkpt><trkpt lat="39.696117643679564" lon="9.632528530218591"><ele>52.0</ele><time>2026-04-28T16:26:13.954Z</time></trkpt><trkpt lat="39.696157876796185" lon="9.632309986781118"><ele>52.0</ele><time>2026-04-28T16:26:14.954Z</time></trkpt><trkpt lat="39.69619890432244" lon="9.632094298773831"><ele>52.0</ele><time>2026-04-28T16:26:15.954Z</time></trkpt><trkpt lat="39.69624032438578" lon="9.631878044395124"><ele>52.0</ele><time>2026-04-28T16:26:16.954Z</time></trkpt><trkpt lat="39.69628160923655" lon="9.631662224229167"><ele>52.666666666666664</ele><time>2026-04-28T16:26:17.954Z</time></trkpt><trkpt lat="39.69631078553115" lon="9.631445081445332"><ele>53.33333333333333</ele><time>2026-04-28T16:26:18.954Z</time></trkpt><trkpt lat="39.696326057061256" lon="9.63122293377811"><ele>54.0</ele><time>2026-04-28T16:26:19.954Z</time></trkpt><trkpt lat="39.69633209043118" lon="9.631004021079184"><ele>54.66666666666667</ele><time>2026-04-28T16:26:20.954Z</time></trkpt><trkpt lat="39.69633464007013" lon="9.630780659563865"><ele>55.333333333333336</ele><time>2026-04-28T16:26:21.954Z</time></trkpt><trkpt lat="39.69634076821367" lon="9.630563504944945"><ele>56.0</ele><time>2026-04-28T16:26:22.954Z</time></trkpt><trkpt lat="39.69634280017161" lon="9.630346765696"><ele>57.5</ele><time>2026-04-28T16:26:23.954Z</time></trkpt><trkpt lat="39.696343345226396" lon="9.630149452694932"><ele>59.0</ele><time>2026-04-28T16:26:24.954Z</time></trkpt><trkpt lat="39.696347690467746" lon="9.62996789961855"><ele>60.5</ele><time>2026-04-28T16:26:25.954Z</time></trkpt><trkpt lat="39.69635957500099" lon="9.629805987622753"><ele>62.0</ele><time>2026-04-28T16:26:26.954Z</time></trkpt><trkpt lat="39.69639109290942" lon="9.629662161539912"><ele>62.0</ele><time>2026-04-28T16:26:27.955Z</time></trkpt><trkpt lat="39.69644075400658" lon="9.629530857736324"><ele>62.0</ele><time>2026-04-28T16:26:28.955Z</time></trkpt><trkpt lat="39.69651391005932" lon="9.629398558660576"><ele>62.0</ele><time>2026-04-28T16:26:29.955Z</time></trkpt><trkpt lat="39.69660235336" lon="9.629257871876682"><ele>62.0</ele><time>2026-04-28T16:26:30.955Z</time></trkpt><trkpt lat="39.696696315827474" lon="9.629106271403717"><ele>64.33333333333334</ele><time>2026-04-28T16:26:31.955Z</time></trkpt><trkpt lat="39.696794944687625" lon="9.628944984491614"><ele>66.66666666666667</ele><time>2026-04-28T16:26:32.954Z</time></trkpt><trkpt lat="39.696894772731035" lon="9.628777000784247"><ele>69.0</ele><time>2026-04-28T16:26:33.953Z</time></trkpt><trkpt lat="39.696995366940214" lon="9.628610410982875"><ele>70.25</ele><time>2026-04-28T16:26:34.953Z</time></trkpt><trkpt lat="39.6970935184772" lon="9.628449520428978"><ele>71.5</ele><time>2026-04-28T16:26:35.953Z</time></trkpt><trkpt lat="39.697182122179086" lon="9.628307700064214"><ele>72.75</ele><time>2026-04-28T16:26:36.953Z</time></trkpt><trkpt lat="39.697265898729114" lon="9.628170934040757"><ele>74.0</ele><time>2026-04-28T16:26:37.953Z</time></trkpt><trkpt lat="39.69734767462318" lon="9.628050849323872"><ele>74.0</ele><time>2026-04-28T16:26:38.954Z</time></trkpt><trkpt lat="39.69742933716821" lon="9.627951556350185"><ele>74.0</ele><time>2026-04-28T16:26:39.953Z</time></trkpt><trkpt lat="39.69751365808778" lon="9.62787975314309"><ele>74.0</ele><time>2026-04-28T16:26:40.953Z</time></trkpt><trkpt lat="39.697602905718355" lon="9.62783071908664"><ele>74.0</ele><time>2026-04-28T16:26:41.954Z</time></trkpt><trkpt lat="39.69769555657596" lon="9.62781628178326"><ele>74.0</ele><time>2026-04-28T16:26:42.953Z</time></trkpt><trkpt lat="39.697788705332215" lon="9.627853816145286"><ele>75.75</ele><time>2026-04-28T16:26:43.953Z</time></trkpt><trkpt lat="39.69789171601714" lon="9.627888028336987"><ele>77.5</ele><time>2026-04-28T16:26:44.953Z</time></trkpt><trkpt lat="39.69800542767316" lon="9.627905641754452"><ele>79.25</ele><time>2026-04-28T16:26:45.954Z</time></trkpt><trkpt lat="39.698113470853926" lon="9.627959538828629"><ele>81.0</ele><time>2026-04-28T16:26:46.954Z</time></trkpt><trkpt lat="39.69823726404501" lon="9.62798004718034"><ele>81.0</ele><time>2026-04-28T16:26:47.954Z</time></trkpt><trkpt lat="39.69837056032721" lon="9.627977720186733"><ele>81.0</ele><time>2026-04-28T16:26:48.954Z</time></trkpt><trkpt lat="39.69850659274533" lon="9.627941684902265"><ele>81.0</ele><time>2026-04-28T16:26:49.954Z</time></trkpt><trkpt lat="39.69864254368907" lon="9.627891988812955"><ele>81.0</ele><time>2026-04-28T16:26:50.954Z</time></trkpt><trkpt lat="39.69878362895642" lon="9.627838462114987"><ele>89.33333333333334</ele><time>2026-04-28T16:26:51.954Z</time></trkpt><trkpt lat="39.69893743465471" lon="9.627782516474728"><ele>97.66666666666667</ele><time>2026-04-28T16:26:52.954Z</time></trkpt><trkpt lat="39.69909720296879" lon="9.627725083053809"><ele>106.0</ele><time>2026-04-28T16:26:53.954Z</time></trkpt><trkpt lat="39.69924978184801" lon="9.627669188381828"><ele>106.0</ele><time>2026-04-28T16:26:54.954Z</time></trkpt><trkpt lat="39.699399792413786" lon="9.627613456765662"><ele>106.0</ele><time>2026-04-28T16:26:55.954Z</time></trkpt><trkpt lat="39.69954593203192" lon="9.62755850193406"><ele>106.0</ele><time>2026-04-28T16:26:56.954Z</time></trkpt><trkpt lat="39.69968442487469" lon="9.62750898295205"><ele>103.5</ele><time>2026-04-28T16:26:57.954Z</time></trkpt><trkpt lat="39.69981238209984" lon="9.627456173674197"><ele>101.0</ele><time>2026-04-28T16:26:58.954Z</time></trkpt><trkpt lat="39.699920574295405" lon="9.627397049737423"><ele>98.5</ele><time>2026-04-28T16:26:59.954Z</time></trkpt><trkpt lat="39.700015826694646" lon="9.62731828579844"><ele>96.0</ele><time>2026-04-28T16:27:00.954Z</time></trkpt><trkpt lat="39.700099122730585" lon="9.627211482739927"><ele>96.0</ele><time>2026-04-28T16:27:01.954Z</time></trkpt><trkpt lat="39.70017099625107" lon="9.62708301141887"><ele>96.0</ele><time>2026-04-28T16:27:02.954Z</time></trkpt><trkpt lat="39.70022807470502" lon="9.626940631397428"><ele>96.0</ele><time>2026-04-28T16:27:03.954Z</time></trkpt><trkpt lat="39.70027241023054" lon="9.626807904994585"><ele>96.0</ele><time>2026-04-28T16:27:04.954Z</time></trkpt><trkpt lat="39.70032022858979" lon="9.626699025807945"><ele>97.6</ele><time>2026-04-28T16:27:05.954Z</time></trkpt><trkpt lat="39.70039171244817" lon="9.626621380530764"><ele>99.19999999999999</ele><time>2026-04-28T16:27:06.954Z</time></trkpt><trkpt lat="39.70047414381655" lon="9.626583942384967"><ele>100.80000000000001</ele><time>2026-04-28T16:27:07.954Z</time></trkpt><trkpt lat="39.700561132052016" lon="9.626579621556182"><ele>102.4</ele><time>2026-04-28T16:27:08.954Z</time></trkpt><trkpt lat="39.70065156980421" lon="9.626589880110258"><ele>104.0</ele><time>2026-04-28T16:27:09.954Z</time></trkpt><trkpt lat="39.70075399517224" lon="9.626605392574168"><ele>104.0</ele><time>2026-04-28T16:27:10.954Z</time></trkpt><trkpt lat="39.70084792206331" lon="9.626586638578408"><ele>104.0</ele><time>2026-04-28T16:27:11.954Z</time></trkpt><trkpt lat="39.70093259038901" lon="9.626526806163932"><ele>104.0</ele><time>2026-04-28T16:27:12.954Z</time></trkpt><trkpt lat="39.70099795683794" lon="9.626438925914476"><ele>104.0</ele><time>2026-04-28T16:27:13.954Z</time></trkpt><trkpt lat="39.70104755744753" lon="9.626326536582411"><ele>104.0</ele><time>2026-04-28T16:27:14.954Z</time></trkpt><trkpt lat="39.701088928469645" lon="9.626202758939769"><ele>105.75</ele><time>2026-04-28T16:27:15.954Z</time></trkpt><trkpt lat="39.701136270673686" lon="9.626055600068847"><ele>107.5</ele><time>2026-04-28T16:27:16.954Z</time></trkpt><trkpt lat="39.7011908748352" lon="9.625901402070516"><ele>109.25</ele><time>2026-04-28T16:27:17.954Z</time></trkpt><trkpt lat="39.701245014250965" lon="9.625761209635998"><ele>111.0</ele><time>2026-04-28T16:27:18.954Z</time></trkpt><trkpt lat="39.70130756551162" lon="9.625646587761736"><ele>111.0</ele><time>2026-04-28T16:27:19.954Z</time></trkpt><trkpt lat="39.7013839398418" lon="9.625559102849651"><ele>111.0</ele><time>2026-04-28T16:27:20.954Z</time></trkpt><trkpt lat="39.70147112872076" lon="9.625503583089921"><ele>111.0</ele><time>2026-04-28T16:27:21.955Z</time></trkpt><trkpt lat="39.70155830971672" lon="9.625483546970177"><ele>111.0</ele><time>2026-04-28T16:27:22.955Z</time></trkpt><trkpt lat="39.70164598321466" lon="9.625497498194928"><ele>111.0</ele><time>2026-04-28T16:27:23.955Z</time></trkpt><trkpt lat="39.701733720395524" lon="9.625553564762335"><ele>111.0</ele><time>2026-04-28T16:27:24.955Z</time></trkpt><trkpt lat="39.70181445082248" lon="9.625623828538743"><ele>111.0</ele><time>2026-04-28T16:27:25.955Z</time></trkpt><trkpt lat="39.701886439746396" lon="9.62572573216894"><ele>111.0</ele><time>2026-04-28T16:27:26.955Z</time></trkpt><trkpt lat="39.70195699003149" lon="9.625837638997345"><ele>111.0</ele><time>2026-04-28T16:27:27.955Z</time></trkpt><trkpt lat="39.70202484187155" lon="9.62593228898957"><ele>111.0</ele><time>2026-04-28T16:27:28.955Z</time></trkpt><trkpt lat="39.70209427676645" lon="9.625994500464827"><ele>114.8</ele><time>2026-04-28T16:27:29.955Z</time></trkpt><trkpt lat="39.702173175889335" lon="9.62603544983967"><ele>118.6</ele><time>2026-04-28T16:27:30.955Z</time></trkpt><trkpt lat="39.702261719031725" lon="9.626048871026157"><ele>122.4</ele><time>2026-04-28T16:27:31.955Z</time></trkpt><trkpt lat="39.702360425654746" lon="9.62603800483273"><ele>126.2</ele><time>2026-04-28T16:27:32.955Z</time></trkpt><trkpt lat="39.70246347266532" lon="9.62600167796723"><ele>130.0</ele><time>2026-04-28T16:27:33.955Z</time></trkpt><trkpt lat="39.70257354831617" lon="9.625953354459277"><ele>130.0</ele><time>2026-04-28T16:27:34.955Z</time></trkpt><trkpt lat="39.70269184181851" lon="9.625912735569019"><ele>130.0</ele><time>2026-04-28T16:27:35.955Z</time></trkpt><trkpt lat="39.70278535238227" lon="9.625812948609738"><ele>130.0</ele><time>2026-04-28T16:27:36.955Z</time></trkpt><trkpt lat="39.702892794297426" lon="9.62571004879369"><ele>130.0</ele><time>2026-04-28T16:27:37.955Z</time></trkpt><trkpt lat="39.702998057921654" lon="9.62561519404059"><ele>127.25</ele><time>2026-04-28T16:27:38.955Z</time></trkpt><trkpt lat="39.70310133859386" lon="9.625539590118265"><ele>124.5</ele><time>2026-04-28T16:27:39.955Z</time></trkpt><trkpt lat="39.70321179038901" lon="9.62548611972784"><ele>121.75</ele><time>2026-04-28T16:27:40.955Z</time></trkpt><trkpt lat="39.70332516405386" lon="9.62546169431256"><ele>119.0</ele><time>2026-04-28T16:27:41.955Z</time></trkpt><trkpt lat="39.70344226732721" lon="9.625449234227846"><ele>119.0</ele><time>2026-04-28T16:27:42.955Z</time></trkpt><trkpt lat="39.703558702525065" lon="9.62542793723544"><ele>119.0</ele><time>2026-04-28T16:27:43.955Z</time></trkpt><trkpt lat="39.70366626142177" lon="9.62538679962395"><ele>119.0</ele><time>2026-04-28T16:27:44.955Z</time></trkpt><trkpt lat="39.70377840863967" lon="9.625324164623239"><ele>119.0</ele><time>2026-04-28T16:27:45.955Z</time></trkpt><trkpt lat="39.70389469168683" lon="9.625236234613274"><ele>125.75</ele><time>2026-04-28T16:27:46.955Z</time></trkpt><trkpt lat="39.70401452278282" lon="9.625149634258664"><ele>132.5</ele><time>2026-04-28T16:27:47.955Z</time></trkpt><trkpt lat="39.704141116377194" lon="9.625079342952677"><ele>139.25</ele><time>2026-04-28T16:27:48.955Z</time></trkpt><trkpt lat="39.70426815970509" lon="9.62504686416524"><ele>146.0</ele><time>2026-04-28T16:27:49.955Z</time></trkpt><trkpt lat="39.70439260050522" lon="9.625035013930672"><ele>141.8</ele><time>2026-04-28T16:27:50.955Z</time></trkpt><trkpt lat="39.704503632593486" lon="9.625016678889555"><ele>137.6</ele><time>2026-04-28T16:27:51.955Z</time></trkpt><trkpt lat="39.704601219133174" lon="9.62499755576185"><ele>133.4</ele><time>2026-04-28T16:27:52.955Z</time></trkpt><trkpt lat="39.7046762396952" lon="9.624913102150535"><ele>129.2</ele><time>2026-04-28T16:27:53.955Z</time></trkpt><trkpt lat="39.70472415317818" lon="9.62479923025748"><ele>125.0</ele><time>2026-04-28T16:27:54.955Z</time></trkpt><trkpt lat="39.70476956127123" lon="9.624675062323758"><ele>125.0</ele><time>2026-04-28T16:27:55.955Z</time></trkpt><trkpt lat="39.7048311033198" lon="9.624549607920867"><ele>125.0</ele><time>2026-04-28T16:27:56.955Z</time></trkpt><trkpt lat="39.70488000992796" lon="9.624396761049956"><ele>125.0</ele><time>2026-04-28T16:27:57.955Z</time></trkpt><trkpt lat="39.70493364408259" lon="9.624264052887037"><ele>125.0</ele><time>2026-04-28T16:27:58.955Z</time></trkpt><trkpt lat="39.704990835410975" lon="9.624153662614226"><ele>129.0</ele><time>2026-04-28T16:27:59.955Z</time></trkpt><trkpt lat="39.705063623010474" lon="9.624066013411298"><ele>133.0</ele><time>2026-04-28T16:28:00.955Z</time></trkpt><trkpt lat="39.70514924217169" lon="9.62401739492175"><ele>137.0</ele><time>2026-04-28T16:28:01.955Z</time></trkpt><trkpt lat="39.70524512882345" lon="9.623991461401657"><ele>141.0</ele><time>2026-04-28T16:28:02.955Z</time></trkpt><trkpt lat="39.70535155083809" lon="9.62398521953056"><ele>145.0</ele><time>2026-04-28T16:28:03.955Z</time></trkpt><trkpt lat="39.705469509879805" lon="9.623977880427304"><ele>145.0</ele><time>2026-04-28T16:28:04.955Z</time></trkpt><trkpt lat="39.70559526440482" lon="9.623969271740407"><ele>145.0</ele><time>2026-04-28T16:28:05.955Z</time></trkpt><trkpt lat="39.70572430038605" lon="9.62395887887932"><ele>145.0</ele><time>2026-04-28T16:28:06.955Z</time></trkpt><trkpt lat="39.705857215462935" lon="9.623943534431653"><ele>145.0</ele><time>2026-04-28T16:28:07.955Z</time></trkpt><trkpt lat="39.706001893283904" lon="9.623908961346045"><ele>142.0</ele><time>2026-04-28T16:28:08.955Z</time></trkpt><trkpt lat="39.70615020141173" lon="9.623848247605514"><ele>139.0</ele><time>2026-04-28T16:28:09.955Z</time></trkpt><trkpt lat="39.70629122966553" lon="9.62377779573961"><ele>136.0</ele><time>2026-04-28T16:28:10.955Z</time></trkpt><trkpt lat="39.70643194804829" lon="9.623707098807648"><ele>140.75</ele><time>2026-04-28T16:28:11.955Z</time></trkpt><trkpt lat="39.70656803242195" lon="9.623628408841968"><ele>145.5</ele><time>2026-04-28T16:28:12.955Z</time></trkpt><trkpt lat="39.70668513028505" lon="9.623533831634994"><ele>150.25</ele><time>2026-04-28T16:28:13.955Z</time></trkpt><trkpt lat="39.70679917295833" lon="9.623414058720945"><ele>155.0</ele><time>2026-04-28T16:28:14.956Z</time></trkpt><trkpt lat="39.706912473631675" lon="9.623290596658354"><ele>155.0</ele><time>2026-04-28T16:28:15.956Z</time></trkpt><trkpt lat="39.70702697004339" lon="9.6231675160897"><ele>155.0</ele><time>2026-04-28T16:28:16.956Z</time></trkpt><trkpt lat="39.70715111523552" lon="9.623062111588721"><ele>155.0</ele><time>2026-04-28T16:28:17.956Z</time></trkpt><trkpt lat="39.70728564880035" lon="9.622974944044072"><ele>155.0</ele><time>2026-04-28T16:28:18.956Z</time></trkpt><trkpt lat="39.70742973096837" lon="9.622901437647284"><ele>155.0</ele><time>2026-04-28T16:28:19.956Z</time></trkpt><trkpt lat="39.70757599587131" lon="9.622834065919845"><ele>155.0</ele><time>2026-04-28T16:28:20.956Z</time></trkpt><trkpt lat="39.70772483014702" lon="9.622770972584624"><ele>155.0</ele><time>2026-04-28T16:28:21.956Z</time></trkpt><trkpt lat="39.70785811388184" lon="9.622715740886006"><ele>162.5</ele><time>2026-04-28T16:28:22.956Z</time></trkpt><trkpt lat="39.70799303001793" lon="9.622685471475677"><ele>170.0</ele><time>2026-04-28T16:28:23.956Z</time></trkpt><trkpt lat="39.70812604978722" lon="9.622691617338507"><ele>177.5</ele><time>2026-04-28T16:28:24.956Z</time></trkpt><trkpt lat="39.70826078921893" lon="9.62272049635474"><ele>185.0</ele><time>2026-04-28T16:28:25.956Z</time></trkpt><trkpt lat="39.7083884627532" lon="9.622764232428912"><ele>185.0</ele><time>2026-04-28T16:28:26.956Z</time></trkpt><trkpt lat="39.70852987163854" lon="9.622814099936777"><ele>185.0</ele><time>2026-04-28T16:28:27.956Z</time></trkpt><trkpt lat="39.708676855226855" lon="9.622864453451369"><ele>185.0</ele><time>2026-04-28T16:28:28.956Z</time></trkpt><trkpt lat="39.708825652323824" lon="9.622950648578962"><ele>183.33333333333331</ele><time>2026-04-28T16:28:29.956Z</time></trkpt><trkpt lat="39.70897394184707" lon="9.623016424738113"><ele>181.66666666666666</ele><time>2026-04-28T16:28:30.956Z</time></trkpt><trkpt lat="39.70910493309089" lon="9.623113687548061"><ele>180.0</ele><time>2026-04-28T16:28:31.956Z</time></trkpt><trkpt lat="39.70923047954565" lon="9.623202448694295"><ele>180.0</ele><time>2026-04-28T16:28:32.956Z</time></trkpt><trkpt lat="39.70934302579406" lon="9.623277269748039"><ele>180.0</ele><time>2026-04-28T16:28:33.956Z</time></trkpt><trkpt lat="39.70943990283599" lon="9.623328049546842"><ele>180.0</ele><time>2026-04-28T16:28:34.956Z</time></trkpt><trkpt lat="39.70951499893126" lon="9.62337117926936"><ele>180.0</ele><time>2026-04-28T16:28:35.956Z</time></trkpt><trkpt lat="39.70959829447562" lon="9.623359663270303"><ele>180.0</ele><time>2026-04-28T16:28:36.956Z</time></trkpt><trkpt lat="39.70966852296887" lon="9.623296510949102"><ele>185.66666666666666</ele><time>2026-04-28T16:28:37.956Z</time></trkpt><trkpt lat="39.709729745313815" lon="9.62322526986075"><ele>191.33333333333331</ele><time>2026-04-28T16:28:38.955Z</time></trkpt><trkpt lat="39.70976644519996" lon="9.623127335586442"><ele>197.0</ele><time>2026-04-28T16:28:39.955Z</time></trkpt><trkpt lat="39.70978009755561" lon="9.623024370144039"><ele>202.66666666666666</ele><time>2026-04-28T16:28:40.955Z</time></trkpt><trkpt lat="39.70977330910652" lon="9.622917061502385"><ele>208.33333333333331</ele><time>2026-04-28T16:28:41.955Z</time></trkpt><trkpt lat="39.70973533759143" lon="9.622802551002849"><ele>214.0</ele><time>2026-04-28T16:28:42.955Z</time></trkpt><trkpt lat="39.70966957588756" lon="9.622693717412314"><ele>217.0</ele><time>2026-04-28T16:28:43.955Z</time></trkpt><trkpt lat="39.709591735670166" lon="9.622592178890475"><ele>220.0</ele><time>2026-04-28T16:28:44.955Z</time></trkpt><trkpt lat="39.70949445243808" lon="9.622485055321286"><ele>223.0</ele><time>2026-04-28T16:28:45.956Z</time></trkpt><trkpt lat="39.70938203946797" lon="9.622378615585353"><ele>226.0</ele><time>2026-04-28T16:28:46.956Z</time></trkpt><trkpt lat="39.709261577467736" lon="9.622265973850174"><ele>226.33333333333331</ele><time>2026-04-28T16:28:47.955Z</time></trkpt><trkpt lat="39.709134821587924" lon="9.622149343408196"><ele>226.66666666666669</ele><time>2026-04-28T16:28:48.955Z</time></trkpt><trkpt lat="39.70901214689968" lon="9.622032985222084"><ele>227.0</ele><time>2026-04-28T16:28:49.955Z</time></trkpt><trkpt lat="39.70888655723294" lon="9.621915359058608"><ele>227.0</ele><time>2026-04-28T16:28:50.955Z</time></trkpt><trkpt lat="39.70876572051785" lon="9.621779620977009"><ele>227.0</ele><time>2026-04-28T16:28:51.955Z</time></trkpt><trkpt lat="39.7086358109338" lon="9.621649728131146"><ele>227.0</ele><time>2026-04-28T16:28:52.955Z</time></trkpt><trkpt lat="39.70850504474407" lon="9.62152342456334"><ele>222.66666666666669</ele><time>2026-04-28T16:28:53.955Z</time></trkpt><trkpt lat="39.7083789958376" lon="9.62140530978153"><ele>218.33333333333331</ele><time>2026-04-28T16:28:54.955Z</time></trkpt><trkpt lat="39.70825896547528" lon="9.62128738173998"><ele>214.0</ele><time>2026-04-28T16:28:55.955Z</time></trkpt><trkpt lat="39.70814506376273" lon="9.621171758091103"><ele>217.5</ele><time>2026-04-28T16:28:56.955Z</time></trkpt><trkpt lat="39.70803368202919" lon="9.621058298015486"><ele>221.0</ele><time>2026-04-28T16:28:57.955Z</time></trkpt><trkpt lat="39.70792853669542" lon="9.620945389341474"><ele>224.5</ele><time>2026-04-28T16:28:58.955Z</time></trkpt><trkpt lat="39.707826663250216" lon="9.620834783228227"><ele>228.0</ele><time>2026-04-28T16:28:59.955Z</time></trkpt><trkpt lat="39.70772743575894" lon="9.620722864792056"><ele>228.0</ele><time>2026-04-28T16:29:00.955Z</time></trkpt><trkpt lat="39.7076337843387" lon="9.620600895705465"><ele>228.0</ele><time>2026-04-28T16:29:01.955Z</time></trkpt><trkpt lat="39.70754134228018" lon="9.620478171584585"><ele>228.0</ele><time>2026-04-28T16:29:02.955Z</time></trkpt><trkpt lat="39.70744753473028" lon="9.620356709843845"><ele>228.0</ele><time>2026-04-28T16:29:03.955Z</time></trkpt><trkpt lat="39.707353463339935" lon="9.620238393750823"><ele>227.25</ele><time>2026-04-28T16:29:04.955Z</time></trkpt><trkpt lat="39.70725703772702" lon="9.620117664268044"><ele>226.5</ele><time>2026-04-28T16:29:05.955Z</time></trkpt><trkpt lat="39.70716109402411" lon="9.619989970380969"><ele>225.75</ele><time>2026-04-28T16:29:06.955Z</time></trkpt><trkpt lat="39.70706660526766" lon="9.61986176269492"><ele>225.0</ele><time>2026-04-28T16:29:07.955Z</time></trkpt><trkpt lat="39.70697962532177" lon="9.619738978510116"><ele>225.25</ele><time>2026-04-28T16:29:08.955Z</time></trkpt><trkpt lat="39.70690310926739" lon="9.619614339219442"><ele>225.5</ele><time>2026-04-28T16:29:09.955Z</time></trkpt><trkpt lat="39.70684166393989" lon="9.619477919528133"><ele>225.75</ele><time>2026-04-28T16:29:10.955Z</time></trkpt><trkpt lat="39.70679536081771" lon="9.61932454529261"><ele>226.0</ele><time>2026-04-28T16:29:11.956Z</time></trkpt><trkpt lat="39.70676258902252" lon="9.619158264006375"><ele>224.75</ele><time>2026-04-28T16:29:12.956Z</time></trkpt><trkpt lat="39.70673699674473" lon="9.618987548918907"><ele>223.5</ele><time>2026-04-28T16:29:13.956Z</time></trkpt><trkpt lat="39.706709013199216" lon="9.618817617876456"><ele>222.25</ele><time>2026-04-28T16:29:14.956Z</time></trkpt><trkpt lat="39.7066689440902" lon="9.618654338758015"><ele>221.0</ele><time>2026-04-28T16:29:15.956Z</time></trkpt><trkpt lat="39.7066173636952" lon="9.618503495964777"><ele>219.0</ele><time>2026-04-28T16:29:16.956Z</time></trkpt><trkpt lat="39.706548767020934" lon="9.618359948221054"><ele>217.0</ele><time>2026-04-28T16:29:17.956Z</time></trkpt><trkpt lat="39.70647176344839" lon="9.618218804247233"><ele>215.0</ele><time>2026-04-28T16:29:18.956Z</time></trkpt><trkpt lat="39.70639330310786" lon="9.618083365776284"><ele>213.0</ele><time>2026-04-28T16:29:19.956Z</time></trkpt><trkpt lat="39.706311685526195" lon="9.617950450797322"><ele>213.25</ele><time>2026-04-28T16:29:20.956Z</time></trkpt><trkpt lat="39.706232259769685" lon="9.617810227429164"><ele>213.5</ele><time>2026-04-28T16:29:21.956Z</time></trkpt><trkpt lat="39.706164596475844" lon="9.61764565080108"><ele>213.75</ele><time>2026-04-28T16:29:22.956Z</time></trkpt><trkpt lat="39.706105583216605" lon="9.61746363932462"><ele>214.0</ele><time>2026-04-28T16:29:23.956Z</time></trkpt><trkpt lat="39.70604603561233" lon="9.617268278395962"><ele>214.0</ele><time>2026-04-28T16:29:24.956Z</time></trkpt><trkpt lat="39.7059882888538" lon="9.617068931019515"><ele>214.0</ele><time>2026-04-28T16:29:25.956Z</time></trkpt><trkpt lat="39.705931347375575" lon="9.616866513035319"><ele>214.0</ele><time>2026-04-28T16:29:26.956Z</time></trkpt><trkpt lat="39.70587017010876" lon="9.61665893937426"><ele>209.0</ele><time>2026-04-28T16:29:27.956Z</time></trkpt><trkpt lat="39.705807860532715" lon="9.6164579587735"><ele>204.0</ele><time>2026-04-28T16:29:28.956Z</time></trkpt><trkpt lat="39.70574769484065" lon="9.616265141233107"><ele>199.0</ele><time>2026-04-28T16:29:29.956Z</time></trkpt><trkpt lat="39.70569430395553" lon="9.61607803512335"><ele>196.0</ele><time>2026-04-28T16:29:30.956Z</time></trkpt><trkpt lat="39.70564419909866" lon="9.615902823182063"><ele>193.0</ele><time>2026-04-28T16:29:31.956Z</time></trkpt><trkpt lat="39.70559728148565" lon="9.615747356885372"><ele>190.0</ele><time>2026-04-28T16:29:32.956Z</time></trkpt><trkpt lat="39.7055562067616" lon="9.615621707401234"><ele>187.0</ele><time>2026-04-28T16:29:33.956Z</time></trkpt><trkpt lat="39.70551315388638" lon="9.615519597609884"><ele>187.0</ele><time>2026-04-28T16:29:34.956Z</time></trkpt><trkpt lat="39.70546190742339" lon="9.615437319278263"><ele>187.0</ele><time>2026-04-28T16:29:35.956Z</time></trkpt><trkpt lat="39.70539207690661" lon="9.615374120598503"><ele>187.0</ele><time>2026-04-28T16:29:36.956Z</time></trkpt><trkpt lat="39.705304575844295" lon="9.615333568249438"><ele>187.0</ele><time>2026-04-28T16:29:37.956Z</time></trkpt><trkpt lat="39.705198328041725" lon="9.61532392628589"><ele>187.0</ele><time>2026-04-28T16:29:38.956Z</time></trkpt><trkpt lat="39.70508495697205" lon="9.615325309774873"><ele>191.25</ele><time>2026-04-28T16:29:39.956Z</time></trkpt><trkpt lat="39.704958239607436" lon="9.615332067623"><ele>195.5</ele><time>2026-04-28T16:29:40.956Z</time></trkpt><trkpt lat="39.70481745803263" lon="9.615342184060342"><ele>199.75</ele><time>2026-04-28T16:29:41.956Z</time></trkpt><trkpt lat="39.704661122227165" lon="9.615356289131268"><ele>204.0</ele><time>2026-04-28T16:29:42.956Z</time></trkpt><trkpt lat="39.70450169637605" lon="9.615373436899171"><ele>202.5</ele><time>2026-04-28T16:29:43.956Z</time></trkpt><trkpt lat="39.704338922556424" lon="9.615383275463874"><ele>201.0</ele><time>2026-04-28T16:29:44.956Z</time></trkpt><trkpt lat="39.704190479325185" lon="9.615392328887292"><ele>199.5</ele><time>2026-04-28T16:29:45.956Z</time></trkpt><trkpt lat="39.704055541301145" lon="9.615397356024506"><ele>198.0</ele><time>2026-04-28T16:29:46.956Z</time></trkpt><trkpt lat="39.70392727072845" lon="9.615388944547965"><ele>198.0</ele><time>2026-04-28T16:29:47.956Z</time></trkpt><trkpt lat="39.703795913510945" lon="9.61536218801888"><ele>198.0</ele><time>2026-04-28T16:29:48.956Z</time></trkpt><trkpt lat="39.703659866055254" lon="9.61531250294129"><ele>198.0</ele><time>2026-04-28T16:29:49.956Z</time></trkpt><trkpt lat="39.703520572397046" lon="9.615242352139372"><ele>198.0</ele><time>2026-04-28T16:29:50.956Z</time></trkpt><trkpt lat="39.70337551159926" lon="9.615154391501749"><ele>189.0</ele><time>2026-04-28T16:29:51.956Z</time></trkpt><trkpt lat="39.703222885852156" lon="9.61506308465857"><ele>180.0</ele><time>2026-04-28T16:29:52.956Z</time></trkpt><trkpt lat="39.70306085357977" lon="9.614970905908626"><ele>171.0</ele><time>2026-04-28T16:29:53.956Z</time></trkpt><trkpt lat="39.70289846921846" lon="9.614876503519437"><ele>173.33333333333334</ele><time>2026-04-28T16:29:54.956Z</time></trkpt><trkpt lat="39.702740833844096" lon="9.614783255230655"><ele>175.66666666666669</ele><time>2026-04-28T16:29:55.956Z</time></trkpt><trkpt lat="39.702577182456444" lon="9.614689565398633"><ele>178.0</ele><time>2026-04-28T16:29:56.956Z</time></trkpt><trkpt lat="39.702410174989154" lon="9.614594512178414"><ele>178.0</ele><time>2026-04-28T16:29:57.956Z</time></trkpt><trkpt lat="39.70224620686792" lon="9.614500755831402"><ele>178.0</ele><time>2026-04-28T16:29:58.956Z</time></trkpt><trkpt lat="39.70208179584753" lon="9.614405648584315"><ele>178.0</ele><time>2026-04-28T16:29:59.956Z</time></trkpt><trkpt lat="39.70191648685337" lon="9.614311625745854"><ele>174.0</ele><time>2026-04-28T16:30:00.956Z</time></trkpt><trkpt lat="39.701750583271156" lon="9.61421329162795"><ele>170.0</ele><time>2026-04-28T16:30:01.956Z</time></trkpt><trkpt lat="39.70158701067891" lon="9.614116262707856"><ele>166.0</ele><time>2026-04-28T16:30:02.956Z</time></trkpt><trkpt lat="39.70143473578254" lon="9.614028473788386"><ele>166.0</ele><time>2026-04-28T16:30:03.956Z</time></trkpt><trkpt lat="39.70129473581945" lon="9.613941679245066"><ele>166.0</ele><time>2026-04-28T16:30:04.957Z</time></trkpt><trkpt lat="39.70117982612548" lon="9.6138560896737"><ele>166.0</ele><time>2026-04-28T16:30:05.957Z</time></trkpt><trkpt lat="39.70108024817307" lon="9.61375098720188"><ele>166.0</ele><time>2026-04-28T16:30:06.957Z</time></trkpt><trkpt lat="39.70098833632437" lon="9.613622183441286"><ele>166.0</ele><time>2026-04-28T16:30:07.957Z</time></trkpt><trkpt lat="39.70090502171918" lon="9.613477255665977"><ele>166.0</ele><time>2026-04-28T16:30:08.957Z</time></trkpt><trkpt lat="39.70083650004768" lon="9.613338185430967"><ele>166.0</ele><time>2026-04-28T16:30:09.957Z</time></trkpt><trkpt lat="39.70078597277996" lon="9.613190891440325"><ele>166.0</ele><time>2026-04-28T16:30:10.957Z</time></trkpt><trkpt lat="39.700756739707316" lon="9.613021789788881"><ele>166.0</ele><time>2026-04-28T16:30:11.957Z</time></trkpt><trkpt lat="39.70074108160094" lon="9.612840700436072"><ele>166.0</ele><time>2026-04-28T16:30:12.957Z</time></trkpt><trkpt lat="39.70073451058394" lon="9.612665826142134"><ele>166.0</ele><time>2026-04-28T16:30:13.957Z</time></trkpt><trkpt lat="39.70072654751926" lon="9.612513910407651"><ele>166.0</ele><time>2026-04-28T16:30:14.957Z</time></trkpt><trkpt lat="39.70070734768146" lon="9.612374671939495"><ele>164.20000000000002</ele><time>2026-04-28T16:30:15.957Z</time></trkpt><trkpt lat="39.70066551827024" lon="9.61224886695878"><ele>162.4</ele><time>2026-04-28T16:30:16.957Z</time></trkpt><trkpt lat="39.70061939344707" lon="9.61212838439931"><ele>160.6</ele><time>2026-04-28T16:30:17.957Z</time></trkpt><trkpt lat="39.700532208227216" lon="9.612040355932923"><ele>158.8</ele><time>2026-04-28T16:30:18.957Z</time></trkpt><trkpt lat="39.70041754921143" lon="9.611983241744078"><ele>157.0</ele><time>2026-04-28T16:30:19.957Z</time></trkpt><trkpt lat="39.70029505628315" lon="9.61191006656589"><ele>155.66666666666669</ele><time>2026-04-28T16:30:20.957Z</time></trkpt><trkpt lat="39.700155081267816" lon="9.611835869554517"><ele>154.33333333333334</ele><time>2026-04-28T16:30:21.957Z</time></trkpt><trkpt lat="39.70000087425619" lon="9.611760455785879"><ele>153.0</ele><time>2026-04-28T16:30:22.957Z</time></trkpt><trkpt lat="39.69984206559623" lon="9.611682219250815"><ele>153.0</ele><time>2026-04-28T16:30:23.957Z</time></trkpt><trkpt lat="39.69968377218451" lon="9.611596594163471"><ele>153.0</ele><time>2026-04-28T16:30:24.957Z</time></trkpt><trkpt lat="39.69952210477534" lon="9.61151353441777"><ele>153.0</ele><time>2026-04-28T16:30:25.957Z</time></trkpt><trkpt lat="39.69935917153615" lon="9.611427882069815"><ele>154.0</ele><time>2026-04-28T16:30:26.957Z</time></trkpt><trkpt lat="39.69919145076024" lon="9.61134058574411"><ele>155.0</ele><time>2026-04-28T16:30:27.957Z</time></trkpt><trkpt lat="39.699021154323106" lon="9.61125485624627"><ele>156.0</ele><time>2026-04-28T16:30:28.957Z</time></trkpt><trkpt lat="39.698852246185055" lon="9.611165857886268"><ele>155.33333333333334</ele><time>2026-04-28T16:30:29.957Z</time></trkpt><trkpt lat="39.698684376305174" lon="9.611076404969602"><ele>154.66666666666669</ele><time>2026-04-28T16:30:30.957Z</time></trkpt><trkpt lat="39.698521637849716" lon="9.610987569341681"><ele>154.0</ele><time>2026-04-28T16:30:31.957Z</time></trkpt><trkpt lat="39.69837772359137" lon="9.610916762373307"><ele>153.75</ele><time>2026-04-28T16:30:32.957Z</time></trkpt><trkpt lat="39.698244371593894" lon="9.610835282113388"><ele>153.5</ele><time>2026-04-28T16:30:33.957Z</time></trkpt><trkpt lat="39.698108550485465" lon="9.610795917195569"><ele>153.25</ele><time>2026-04-28T16:30:34.957Z</time></trkpt><trkpt lat="39.69798135628079" lon="9.610816597352787"><ele>153.0</ele><time>2026-04-28T16:30:35.957Z</time></trkpt><trkpt lat="39.69786088560732" lon="9.610860079607379"><ele>152.0</ele><time>2026-04-28T16:30:36.957Z</time></trkpt><trkpt lat="39.69773811140223" lon="9.610939018933177"><ele>151.0</ele><time>2026-04-28T16:30:37.957Z</time></trkpt><trkpt lat="39.697600545756636" lon="9.61098071821637"><ele>150.0</ele><time>2026-04-28T16:30:38.957Z</time></trkpt><trkpt lat="39.69746550746127" lon="9.61103884018092"><ele>149.0</ele><time>2026-04-28T16:30:39.957Z</time></trkpt><trkpt lat="39.697335394755456" lon="9.611095402489521"><ele>149.0</ele><time>2026-04-28T16:30:40.957Z</time></trkpt><trkpt lat="39.697198805590546" lon="9.61110746900081"><ele>149.0</ele><time>2026-04-28T16:30:41.957Z</time></trkpt><trkpt lat="39.69706482973322" lon="9.611087127398644"><ele>149.0</ele><time>2026-04-28T16:30:42.957Z</time></trkpt><trkpt lat="39.69693980067725" lon="9.611044303401885"><ele>149.0</ele><time>2026-04-28T16:30:43.957Z</time></trkpt><trkpt lat="39.69684288903649" lon="9.610983076624157"><ele>151.0</ele><time>2026-04-28T16:30:44.957Z</time></trkpt><trkpt lat="39.69676812932621" lon="9.610907959821672"><ele>153.0</ele><time>2026-04-28T16:30:45.957Z</time></trkpt><trkpt lat="39.69671608493792" lon="9.610805113508006"><ele>155.0</ele><time>2026-04-28T16:30:46.957Z</time></trkpt><trkpt lat="39.696665257488476" lon="9.610676439181473"><ele>157.0</ele><time>2026-04-28T16:30:47.957Z</time></trkpt><trkpt lat="39.69661780932368" lon="9.61052698286213"><ele>159.0</ele><time>2026-04-28T16:30:48.957Z</time></trkpt><trkpt lat="39.69656885322034" lon="9.610363332862027"><ele>153.66666666666666</ele><time>2026-04-28T16:30:49.957Z</time></trkpt><trkpt lat="39.69652059971697" lon="9.61019169319346"><ele>148.33333333333331</ele><time>2026-04-28T16:30:50.957Z</time></trkpt><trkpt lat="39.69647785272647" lon="9.610001850696976"><ele>143.0</ele><time>2026-04-28T16:30:51.957Z</time></trkpt><trkpt lat="39.69643835997136" lon="9.609804076260815"><ele>143.0</ele><time>2026-04-28T16:30:52.957Z</time></trkpt><trkpt lat="39.69639627007479" lon="9.609607665560304"><ele>143.0</ele><time>2026-04-28T16:30:53.958Z</time></trkpt><trkpt lat="39.696352922770004" lon="9.60943057223493"><ele>143.0</ele><time>2026-04-28T16:30:54.958Z</time></trkpt><trkpt lat="39.696302021904586" lon="9.60926677172227"><ele>143.0</ele><time>2026-04-28T16:30:55.958Z</time></trkpt><trkpt lat="39.69625227187624" lon="9.609103047495621"><ele>144.0</ele><time>2026-04-28T16:30:56.957Z</time></trkpt><trkpt lat="39.69616644769664" lon="9.608981029659423"><ele>145.0</ele><time>2026-04-28T16:30:57.958Z</time></trkpt><trkpt lat="39.69607168393655" lon="9.608889366976372"><ele>146.0</ele><time>2026-04-28T16:30:58.958Z</time></trkpt><trkpt lat="39.69597049787389" lon="9.608823660750208"><ele>147.0</ele><time>2026-04-28T16:30:59.958Z</time></trkpt><trkpt lat="39.695867690589296" lon="9.608799071050008"><ele>147.0</ele><time>2026-04-28T16:31:00.958Z</time></trkpt><trkpt lat="39.69576462031223" lon="9.608809439235023"><ele>147.0</ele><time>2026-04-28T16:31:01.958Z</time></trkpt><trkpt lat="39.69565036300563" lon="9.608850138024058"><ele>147.0</ele><time>2026-04-28T16:31:02.958Z</time></trkpt><trkpt lat="39.69553333898529" lon="9.60890364550799"><ele>147.0</ele><time>2026-04-28T16:31:03.958Z</time></trkpt><trkpt lat="39.69540400942418" lon="9.60896367427308"><ele>147.0</ele><time>2026-04-28T16:31:04.958Z</time></trkpt><trkpt lat="39.69527105480456" lon="9.60902636190798"><ele>147.0</ele><time>2026-04-28T16:31:05.958Z</time></trkpt><trkpt lat="39.69513918713114" lon="9.609089678809513"><ele>147.0</ele><time>2026-04-28T16:31:06.958Z</time></trkpt><trkpt lat="39.695020222975025" lon="9.609137720514632"><ele>147.0</ele><time>2026-04-28T16:31:07.958Z</time></trkpt><trkpt lat="39.694902837511826" lon="9.609178544974297"><ele>145.75</ele><time>2026-04-28T16:31:08.959Z</time></trkpt><trkpt lat="39.69479356066676" lon="9.60919473164902"><ele>144.5</ele><time>2026-04-28T16:31:09.959Z</time></trkpt><trkpt lat="39.694669602920186" lon="9.609167955400483"><ele>143.25</ele><time>2026-04-28T16:31:10.959Z</time></trkpt><trkpt lat="39.69453418288703" lon="9.609120906226176"><ele>142.0</ele><time>2026-04-28T16:31:11.959Z</time></trkpt><trkpt lat="39.694402007258624" lon="9.60906614738811"><ele>141.4</ele><time>2026-04-28T16:31:12.959Z</time></trkpt><trkpt lat="39.69428447683664" lon="9.609009456796196"><ele>140.79999999999998</ele><time>2026-04-28T16:31:13.959Z</time></trkpt><trkpt lat="39.69418594557786" lon="9.608950026843718"><ele>140.2</ele><time>2026-04-28T16:31:14.959Z</time></trkpt><trkpt lat="39.69411064270152" lon="9.608870865721313"><ele>139.6</ele><time>2026-04-28T16:31:15.959Z</time></trkpt><trkpt lat="39.69404037767352" lon="9.608774461853061"><ele>139.0</ele><time>2026-04-28T16:31:16.96Z</time></trkpt><trkpt lat="39.694002883148734" lon="9.608641277518998"><ele>137.75</ele><time>2026-04-28T16:31:17.96Z</time></trkpt><trkpt lat="39.69398754691226" lon="9.608491226031479"><ele>136.5</ele><time>2026-04-28T16:31:18.96Z</time></trkpt><trkpt lat="39.693989786701536" lon="9.608324548126784"><ele>135.25</ele><time>2026-04-28T16:31:19.96Z</time></trkpt><trkpt lat="39.69400559739062" lon="9.608139272645545"><ele>134.0</ele><time>2026-04-28T16:31:20.96Z</time></trkpt><trkpt lat="39.69402660580453" lon="9.607934878983883"><ele>133.0</ele><time>2026-04-28T16:31:21.96Z</time></trkpt><trkpt lat="39.69404818117995" lon="9.607722581661877"><ele>132.0</ele><time>2026-04-28T16:31:22.96Z</time></trkpt><trkpt lat="39.694071605681366" lon="9.607505964438321"><ele>131.0</ele><time>2026-04-28T16:31:23.96Z</time></trkpt><trkpt lat="39.694091147686954" lon="9.607296128751356"><ele>131.0</ele><time>2026-04-28T16:31:24.96Z</time></trkpt><trkpt lat="39.69410911367622" lon="9.607102434406853"><ele>131.0</ele><time>2026-04-28T16:31:25.96Z</time></trkpt><trkpt lat="39.69411977007452" lon="9.60693566293158"><ele>131.0</ele><time>2026-04-28T16:31:26.96Z</time></trkpt><trkpt lat="39.69411261029413" lon="9.606780392034562"><ele>131.0</ele><time>2026-04-28T16:31:27.96Z</time></trkpt><trkpt lat="39.694081758931915" lon="9.606624887369447"><ele>130.5</ele><time>2026-04-28T16:31:28.961Z</time></trkpt><trkpt lat="39.69403295513303" lon="9.606469282184944"><ele>130.0</ele><time>2026-04-28T16:31:29.961Z</time></trkpt><trkpt lat="39.69395926127129" lon="9.606318955104522"><ele>129.5</ele><time>2026-04-28T16:31:30.961Z</time></trkpt><trkpt lat="39.693871925176126" lon="9.60616316206177"><ele>129.0</ele><time>2026-04-28T16:31:31.961Z</time></trkpt><trkpt lat="39.6937726469795" lon="9.606002631783797"><ele>129.0</ele><time>2026-04-28T16:31:32.961Z</time></trkpt><trkpt lat="39.693674942549656" lon="9.605832488663411"><ele>129.0</ele><time>2026-04-28T16:31:33.961Z</time></trkpt><trkpt lat="39.693577740488514" lon="9.60566724023871"><ele>129.0</ele><time>2026-04-28T16:31:34.961Z</time></trkpt><trkpt lat="39.69349561290953" lon="9.605512545124233"><ele>128.25</ele><time>2026-04-28T16:31:35.961Z</time></trkpt><trkpt lat="39.693432999565545" lon="9.605375412347419"><ele>127.5</ele><time>2026-04-28T16:31:36.961Z</time></trkpt><trkpt lat="39.69339309187209" lon="9.605238182207119"><ele>126.75</ele><time>2026-04-28T16:31:37.961Z</time></trkpt><trkpt lat="39.69336930657017" lon="9.605092239880161"><ele>126.0</ele><time>2026-04-28T16:31:38.961Z</time></trkpt><trkpt lat="39.69336689930487" lon="9.604938642722516"><ele>126.0</ele><time>2026-04-28T16:31:39.961Z</time></trkpt><trkpt lat="39.6933829911696" lon="9.604778695823624"><ele>126.0</ele><time>2026-04-28T16:31:40.961Z</time></trkpt><trkpt lat="39.69341426959641" lon="9.604607486428899"><ele>126.0</ele><time>2026-04-28T16:31:41.961Z</time></trkpt><trkpt lat="39.69345452187211" lon="9.604423093858058"><ele>126.0</ele><time>2026-04-28T16:31:42.961Z</time></trkpt><trkpt lat="39.693494505853394" lon="9.604227441830611"><ele>125.5</ele><time>2026-04-28T16:31:43.961Z</time></trkpt><trkpt lat="39.69353423085374" lon="9.604043616267777"><ele>125.0</ele><time>2026-04-28T16:31:44.961Z</time></trkpt><trkpt lat="39.6935701603266" lon="9.603867718166805"><ele>124.5</ele><time>2026-04-28T16:31:45.961Z</time></trkpt><trkpt lat="39.69360764444775" lon="9.603688069501347"><ele>124.0</ele><time>2026-04-28T16:31:46.961Z</time></trkpt><trkpt lat="39.69364520647692" lon="9.603518768446518"><ele>123.2</ele><time>2026-04-28T16:31:47.961Z</time></trkpt><trkpt lat="39.693671975362776" lon="9.603369635347542"><ele>122.4</ele><time>2026-04-28T16:31:48.961Z</time></trkpt><trkpt lat="39.693677462119034" lon="9.60322411252094"><ele>121.6</ele><time>2026-04-28T16:31:49.961Z</time></trkpt><trkpt lat="39.69365687888864" lon="9.603092236107726"><ele>120.8</ele><time>2026-04-28T16:31:50.961Z</time></trkpt><trkpt lat="39.693604032334804" lon="9.60296907747074"><ele>120.0</ele><time>2026-04-28T16:31:51.961Z</time></trkpt><trkpt lat="39.69353368937908" lon="9.602840026547609"><ele>120.33333333333334</ele><time>2026-04-28T16:31:52.961Z</time></trkpt><trkpt lat="39.69343575310483" lon="9.602699970448759"><ele>120.66666666666667</ele><time>2026-04-28T16:31:53.961Z</time></trkpt><trkpt lat="39.69333364003379" lon="9.602544111127107"><ele>121.0</ele><time>2026-04-28T16:31:54.961Z</time></trkpt><trkpt lat="39.69322600172119" lon="9.602368455700132"><ele>121.0</ele><time>2026-04-28T16:31:55.962Z</time></trkpt><trkpt lat="39.693117363823845" lon="9.602196693149084"><ele>121.0</ele><time>2026-04-28T16:31:56.962Z</time></trkpt><trkpt lat="39.69300493712948" lon="9.60201739362548"><ele>121.0</ele><time>2026-04-28T16:31:57.962Z</time></trkpt><trkpt lat="39.69289848449349" lon="9.601854347466018"><ele>120.0</ele><time>2026-04-28T16:31:58.962Z</time></trkpt><trkpt lat="39.692802737469826" lon="9.601697479655408"><ele>119.0</ele><time>2026-04-28T16:31:59.962Z</time></trkpt><trkpt lat="39.69271128193642" lon="9.601543172157324"><ele>118.0</ele><time>2026-04-28T16:32:00.962Z</time></trkpt><trkpt lat="39.692631985019176" lon="9.601388071369406"><ele>117.0</ele><time>2026-04-28T16:32:01.962Z</time></trkpt><trkpt lat="39.692557804302986" lon="9.601235640267866"><ele>116.75</ele><time>2026-04-28T16:32:02.962Z</time></trkpt><trkpt lat="39.692516044007924" lon="9.601072241771426"><ele>116.5</ele><time>2026-04-28T16:32:03.962Z</time></trkpt><trkpt lat="39.69249023972121" lon="9.600896423954245"><ele>116.25</ele><time>2026-04-28T16:32:04.962Z</time></trkpt><trkpt lat="39.692477765251056" lon="9.600710153886588"><ele>116.0</ele><time>2026-04-28T16:32:05.962Z</time></trkpt><trkpt lat="39.692473125718315" lon="9.60052619191899"><ele>116.0</ele><time>2026-04-28T16:32:06.962Z</time></trkpt><trkpt lat="39.69248109628822" lon="9.600361080252334"><ele>116.0</ele><time>2026-04-28T16:32:07.962Z</time></trkpt><trkpt lat="39.69251060420037" lon="9.600202804015462"><ele>116.0</ele><time>2026-04-28T16:32:08.962Z</time></trkpt><trkpt lat="39.69256094768959" lon="9.600046734877601"><ele>116.0</ele><time>2026-04-28T16:32:09.962Z</time></trkpt><trkpt lat="39.692627919368505" lon="9.599889177100637"><ele>115.0</ele><time>2026-04-28T16:32:10.962Z</time></trkpt><trkpt lat="39.6927110864732" lon="9.5997322749305"><ele>114.0</ele><time>2026-04-28T16:32:11.962Z</time></trkpt><trkpt lat="39.692803932324004" lon="9.599564318367687"><ele>113.0</ele><time>2026-04-28T16:32:12.962Z</time></trkpt><trkpt lat="39.69288997960077" lon="9.599392145421508"><ele>115.0</ele><time>2026-04-28T16:32:13.962Z</time></trkpt><trkpt lat="39.69297339041622" lon="9.599213697348738"><ele>117.0</ele><time>2026-04-28T16:32:14.962Z</time></trkpt><trkpt lat="39.69305818850598" lon="9.599029712951078"><ele>119.0</ele><time>2026-04-28T16:32:15.962Z</time></trkpt><trkpt lat="39.69313331703051" lon="9.598842173777912"><ele>119.33333333333333</ele><time>2026-04-28T16:32:16.962Z</time></trkpt><trkpt lat="39.69319543519258" lon="9.598652324907114"><ele>119.66666666666666</ele><time>2026-04-28T16:32:17.962Z</time></trkpt><trkpt lat="39.69326284550538" lon="9.598468689655004"><ele>120.0</ele><time>2026-04-28T16:32:18.962Z</time></trkpt><trkpt lat="39.69330185212563" lon="9.598283958000518"><ele>120.0</ele><time>2026-04-28T16:32:19.962Z</time></trkpt><trkpt lat="39.69332486991639" lon="9.598099689534692"><ele>120.0</ele><time>2026-04-28T16:32:20.962Z</time></trkpt><trkpt lat="39.6933285163225" lon="9.597917995256324"><ele>120.0</ele><time>2026-04-28T16:32:21.962Z</time></trkpt><trkpt lat="39.693291557829184" lon="9.597739032920696"><ele>120.0</ele><time>2026-04-28T16:32:22.962Z</time></trkpt><trkpt lat="39.69325909207663" lon="9.597564401414347"><ele>120.0</ele><time>2026-04-28T16:32:23.962Z</time></trkpt><trkpt lat="39.69321665872216" lon="9.59738847088838"><ele>120.0</ele><time>2026-04-28T16:32:24.962Z</time></trkpt><trkpt lat="39.69316775934401" lon="9.597203391763205"><ele>120.0</ele><time>2026-04-28T16:32:25.962Z</time></trkpt><trkpt lat="39.693108783168" lon="9.597017275635476"><ele>120.0</ele><time>2026-04-28T16:32:26.962Z</time></trkpt><trkpt lat="39.693035351752435" lon="9.596836101760635"><ele>119.0</ele><time>2026-04-28T16:32:27.962Z</time></trkpt><trkpt lat="39.692950916765014" lon="9.596657744406443"><ele>118.0</ele><time>2026-04-28T16:32:28.962Z</time></trkpt><trkpt lat="39.69286180532374" lon="9.596479062406953"><ele>117.0</ele><time>2026-04-28T16:32:29.962Z</time></trkpt><trkpt lat="39.69277411965043" lon="9.596307397162388"><ele>115.0</ele><time>2026-04-28T16:32:30.962Z</time></trkpt><trkpt lat="39.692692485116304" lon="9.596153008943064"><ele>113.0</ele><time>2026-04-28T16:32:31.962Z</time></trkpt><trkpt lat="39.69262489526696" lon="9.595996931035177"><ele>111.0</ele><time>2026-04-28T16:32:32.962Z</time></trkpt><trkpt lat="39.692584103002474" lon="9.595820173421844"><ele>109.0</ele><time>2026-04-28T16:32:33.962Z</time></trkpt><trkpt lat="39.69253343759949" lon="9.595659023451192"><ele>109.0</ele><time>2026-04-28T16:32:34.962Z</time></trkpt><trkpt lat="39.69250175756948" lon="9.595484151914691"><ele>109.0</ele><time>2026-04-28T16:32:35.962Z</time></trkpt><trkpt lat="39.69247224061472" lon="9.595311961047772"><ele>109.0</ele><time>2026-04-28T16:32:36.962Z</time></trkpt><trkpt lat="39.69244485353134" lon="9.595151093685407"><ele>109.0</ele><time>2026-04-28T16:32:37.962Z</time></trkpt><trkpt lat="39.692415936650974" lon="9.594983478159332"><ele>109.0</ele><time>2026-04-28T16:32:38.962Z</time></trkpt><trkpt lat="39.692399856082666" lon="9.59480547512876"><ele>109.0</ele><time>2026-04-28T16:32:39.962Z</time></trkpt><trkpt lat="39.69236834649712" lon="9.594611718998042"><ele>109.0</ele><time>2026-04-28T16:32:40.962Z</time></trkpt><trkpt lat="39.69234199469981" lon="9.594409990540276"><ele>109.0</ele><time>2026-04-28T16:32:41.962Z</time></trkpt><trkpt lat="39.69232251510516" lon="9.59420474663974"><ele>109.0</ele><time>2026-04-28T16:32:42.963Z</time></trkpt><trkpt lat="39.692308618070214" lon="9.593993343825527"><ele>109.0</ele><time>2026-04-28T16:32:43.963Z</time></trkpt><trkpt lat="39.69230390652631" lon="9.593772112101576"><ele>109.0</ele><time>2026-04-28T16:32:44.963Z</time></trkpt><trkpt lat="39.692302180535485" lon="9.593540306653841"><ele>109.0</ele><time>2026-04-28T16:32:45.963Z</time></trkpt><trkpt lat="39.69231094397607" lon="9.593308595559568"><ele>109.0</ele><time>2026-04-28T16:32:46.963Z</time></trkpt><trkpt lat="39.69232013950697" lon="9.593068403294444"><ele>109.0</ele><time>2026-04-28T16:32:47.963Z</time></trkpt><trkpt lat="39.692327511600844" lon="9.592823380126465"><ele>108.66666666666667</ele><time>2026-04-28T16:32:48.963Z</time></trkpt><trkpt lat="39.69233856658821" lon="9.592575630536915"><ele>108.33333333333334</ele><time>2026-04-28T16:32:49.963Z</time></trkpt><trkpt lat="39.692346373920785" lon="9.592325226339034"><ele>108.0</ele><time>2026-04-28T16:32:50.961Z</time></trkpt><trkpt lat="39.692354252896386" lon="9.592077624814374"><ele>108.33333333333334</ele><time>2026-04-28T16:32:51.961Z</time></trkpt><trkpt lat="39.692359575428846" lon="9.5918377466552"><ele>108.66666666666667</ele><time>2026-04-28T16:32:52.961Z</time></trkpt><trkpt lat="39.6923575066463" lon="9.591609779331941"><ele>109.0</ele><time>2026-04-28T16:32:53.962Z</time></trkpt><trkpt lat="39.69234921820528" lon="9.591388141369922"><ele>109.0</ele><time>2026-04-28T16:32:54.962Z</time></trkpt><trkpt lat="39.69233526118597" lon="9.591179440529524"><ele>109.0</ele><time>2026-04-28T16:32:55.962Z</time></trkpt><trkpt lat="39.6923240113764" lon="9.59098631122795"><ele>109.0</ele><time>2026-04-28T16:32:56.962Z</time></trkpt><trkpt lat="39.692307985208416" lon="9.590800802070877"><ele>109.0</ele><time>2026-04-28T16:32:57.961Z</time></trkpt><trkpt lat="39.692290466332295" lon="9.590619143082298"><ele>109.0</ele><time>2026-04-28T16:32:58.961Z</time></trkpt><trkpt lat="39.692276695870866" lon="9.590439015924193"><ele>109.0</ele><time>2026-04-28T16:32:59.962Z</time></trkpt><trkpt lat="39.692258187247496" lon="9.590253899826806"><ele>109.0</ele><time>2026-04-28T16:33:00.962Z</time></trkpt><trkpt lat="39.69223503113423" lon="9.59007674205386"><ele>108.75</ele><time>2026-04-28T16:33:01.962Z</time></trkpt><trkpt lat="39.69220524257973" lon="9.589905690297877"><ele>108.5</ele><time>2026-04-28T16:33:02.962Z</time></trkpt><trkpt lat="39.69217911220191" lon="9.589742408598621"><ele>108.25</ele><time>2026-04-28T16:33:03.961Z</time></trkpt><trkpt lat="39.692119601996936" lon="9.58957826909394"><ele>108.0</ele><time>2026-04-28T16:33:04.961Z</time></trkpt><trkpt lat="39.69204121599851" lon="9.589416516708008"><ele>108.33333333333334</ele><time>2026-04-28T16:33:05.961Z</time></trkpt><trkpt lat="39.69195086219295" lon="9.58925711191052"><ele>108.66666666666667</ele><time>2026-04-28T16:33:06.961Z</time></trkpt><trkpt lat="39.69185241463191" lon="9.589104112072743"><ele>109.0</ele><time>2026-04-28T16:33:07.961Z</time></trkpt><trkpt lat="39.69175402663331" lon="9.588962044535215"><ele>109.0</ele><time>2026-04-28T16:33:08.961Z</time></trkpt><trkpt lat="39.691662707909686" lon="9.588831510066134"><ele>109.0</ele><time>2026-04-28T16:33:09.961Z</time></trkpt><trkpt lat="39.691577347588265" lon="9.58871289329003"><ele>109.0</ele><time>2026-04-28T16:33:10.962Z</time></trkpt><trkpt lat="39.6915047973827" lon="9.588611419560038"><ele>109.0</ele><time>2026-04-28T16:33:11.962Z</time></trkpt><trkpt lat="39.69144995900664" lon="9.588532327177393"><ele>109.0</ele><time>2026-04-28T16:33:12.962Z</time></trkpt><trkpt lat="39.69140315894207" lon="9.588468796354226"><ele>109.6</ele><time>2026-04-28T16:33:13.962Z</time></trkpt><trkpt lat="39.69135785641862" lon="9.58839949773641"><ele>110.2</ele><time>2026-04-28T16:33:15.962Z</time></trkpt><trkpt lat="39.69121853458906" lon="9.588515843101797"><ele>110.79999999999998</ele><time>2026-04-28T16:33:17.962Z</time></trkpt><trkpt lat="39.691163750556825" lon="9.588580465809802"><ele>111.39999999999999</ele><time>2026-04-28T16:33:18.962Z</time></trkpt><trkpt lat="39.691093442703895" lon="9.58863288883528"><ele>112.0</ele><time>2026-04-28T16:33:19.962Z</time></trkpt><trkpt lat="39.69101594713678" lon="9.588667786174593"><ele>110.66666666666667</ele><time>2026-04-28T16:33:20.962Z</time></trkpt><trkpt lat="39.69094260284282" lon="9.588672230598718"><ele>109.33333333333334</ele><time>2026-04-28T16:33:21.962Z</time></trkpt><trkpt lat="39.690863724980495" lon="9.588642325921093"><ele>108.0</ele><time>2026-04-28T16:33:22.962Z</time></trkpt><trkpt lat="39.690788740895655" lon="9.588588532553295"><ele>106.66666666666666</ele><time>2026-04-28T16:33:23.962Z</time></trkpt><trkpt lat="39.690720015524974" lon="9.588513849061822"><ele>105.33333333333333</ele><time>2026-04-28T16:33:24.962Z</time></trkpt><trkpt lat="39.690672847892706" lon="9.588419209365666"><ele>104.0</ele><time>2026-04-28T16:33:25.962Z</time></trkpt><trkpt lat="39.6906583057718" lon="9.588311863041383"><ele>104.0</ele><time>2026-04-28T16:33:26.962Z</time></trkpt><trkpt lat="39.69066825641222" lon="9.58820008619589"><ele>104.0</ele><time>2026-04-28T16:33:27.962Z</time></trkpt><trkpt lat="39.690695701683055" lon="9.588092967614827"><ele>104.0</ele><time>2026-04-28T16:33:28.962Z</time></trkpt><trkpt lat="39.69074472166836" lon="9.587993197468025"><ele>104.0</ele><time>2026-04-28T16:33:29.962Z</time></trkpt><trkpt lat="39.6908187520568" lon="9.587909636254839"><ele>104.0</ele><time>2026-04-28T16:33:30.962Z</time></trkpt><trkpt lat="39.69089969242895" lon="9.587820069673548"><ele>103.75</ele><time>2026-04-28T16:33:31.962Z</time></trkpt><trkpt lat="39.69099529357809" lon="9.587755308774652"><ele>103.5</ele><time>2026-04-28T16:33:32.962Z</time></trkpt><trkpt lat="39.69112849638277" lon="9.587780366008982"><ele>103.25</ele><time>2026-04-28T16:33:33.962Z</time></trkpt><trkpt lat="39.691250390005116" lon="9.58776498264073"><ele>103.0</ele><time>2026-04-28T16:33:34.962Z</time></trkpt><trkpt lat="39.69137866313004" lon="9.587745208265627"><ele>104.75</ele><time>2026-04-28T16:33:35.962Z</time></trkpt><trkpt lat="39.69152172667109" lon="9.587715728530082"><ele>106.5</ele><time>2026-04-28T16:33:36.962Z</time></trkpt><trkpt lat="39.69166998857545" lon="9.58769188315264"><ele>108.25</ele><time>2026-04-28T16:33:37.962Z</time></trkpt><trkpt lat="39.691821497308325" lon="9.58766772761826"><ele>110.0</ele><time>2026-04-28T16:33:38.962Z</time></trkpt><trkpt lat="39.691980726519255" lon="9.587636484733698"><ele>111.0</ele><time>2026-04-28T16:33:39.962Z</time></trkpt><trkpt lat="39.69214511107669" lon="9.587605442151677"><ele>112.0</ele><time>2026-04-28T16:33:40.962Z</time></trkpt><trkpt lat="39.692309419517144" lon="9.58758066941278"><ele>113.0</ele><time>2026-04-28T16:33:41.962Z</time></trkpt><trkpt lat="39.692475494348486" lon="9.587555944939226"><ele>113.0</ele><time>2026-04-28T16:33:42.962Z</time></trkpt><trkpt lat="39.69264186256456" lon="9.587529491026892"><ele>113.0</ele><time>2026-04-28T16:33:43.962Z</time></trkpt><trkpt lat="39.69280572027511" lon="9.587499372056145"><ele>113.0</ele><time>2026-04-28T16:33:44.962Z</time></trkpt><trkpt lat="39.692975274694824" lon="9.587473168304726"><ele>112.66666666666666</ele><time>2026-04-28T16:33:45.962Z</time></trkpt><trkpt lat="39.69314110471603" lon="9.587449164144706"><ele>112.33333333333334</ele><time>2026-04-28T16:33:46.962Z</time></trkpt><trkpt lat="39.69331077026275" lon="9.587421176621142"><ele>112.0</ele><time>2026-04-28T16:33:47.962Z</time></trkpt><trkpt lat="39.69347935519327" lon="9.587398011794168"><ele>112.33333333333334</ele><time>2026-04-28T16:33:48.962Z</time></trkpt><trkpt lat="39.69364930049353" lon="9.587373310384647"><ele>112.66666666666666</ele><time>2026-04-28T16:33:49.962Z</time></trkpt><trkpt lat="39.693817746642274" lon="9.587349871699931"><ele>113.0</ele><time>2026-04-28T16:33:50.962Z</time></trkpt><trkpt lat="39.69398915772648" lon="9.587324651261548"><ele>113.0</ele><time>2026-04-28T16:33:51.962Z</time></trkpt><trkpt lat="39.69415946998933" lon="9.587297937958128"><ele>113.0</ele><time>2026-04-28T16:33:52.962Z</time></trkpt><trkpt lat="39.69433388023497" lon="9.58727877735084"><ele>113.0</ele><time>2026-04-28T16:33:53.962Z</time></trkpt><trkpt lat="39.694505324232836" lon="9.587252858041646"><ele>114.66666666666666</ele><time>2026-04-28T16:33:54.962Z</time></trkpt><trkpt lat="39.69468133758399" lon="9.58723037343699"><ele>116.33333333333334</ele><time>2026-04-28T16:33:55.962Z</time></trkpt><trkpt lat="39.694855207029384" lon="9.587206076191203"><ele>118.0</ele><time>2026-04-28T16:33:56.962Z</time></trkpt><trkpt lat="39.69503075896605" lon="9.587182615146567"><ele>118.0</ele><time>2026-04-28T16:33:57.962Z</time></trkpt><trkpt lat="39.69520570978055" lon="9.587158980970214"><ele>118.0</ele><time>2026-04-28T16:33:58.962Z</time></trkpt><trkpt lat="39.69538273452747" lon="9.587135215105297"><ele>118.0</ele><time>2026-04-28T16:33:59.962Z</time></trkpt><trkpt lat="39.69555542049468" lon="9.58710384442106"><ele>121.0</ele><time>2026-04-28T16:34:00.962Z</time></trkpt><trkpt lat="39.69572597022628" lon="9.587079004528018"><ele>124.0</ele><time>2026-04-28T16:34:01.962Z</time></trkpt><trkpt lat="39.695899699071745" lon="9.587058013329868"><ele>127.0</ele><time>2026-04-28T16:34:02.963Z</time></trkpt><trkpt lat="39.6960707208721" lon="9.587034248896563"><ele>124.0</ele><time>2026-04-28T16:34:03.963Z</time></trkpt><trkpt lat="39.69624613989768" lon="9.587010451077546"><ele>121.0</ele><time>2026-04-28T16:34:04.963Z</time></trkpt><trkpt lat="39.696415729601206" lon="9.586986788738596"><ele>118.0</ele><time>2026-04-28T16:34:05.963Z</time></trkpt><trkpt lat="39.69658578472875" lon="9.586969070272774"><ele>118.0</ele><time>2026-04-28T16:34:06.963Z</time></trkpt><trkpt lat="39.69675442095479" lon="9.58695220406135"><ele>118.0</ele><time>2026-04-28T16:34:07.963Z</time></trkpt><trkpt lat="39.69692155890428" lon="9.586941625701757"><ele>118.0</ele><time>2026-04-28T16:34:08.963Z</time></trkpt><trkpt lat="39.69708896478435" lon="9.586933166428535"><ele>118.33333333333334</ele><time>2026-04-28T16:34:09.963Z</time></trkpt><trkpt lat="39.697254321187444" lon="9.58692119373231"><ele>118.66666666666666</ele><time>2026-04-28T16:34:10.963Z</time></trkpt><trkpt lat="39.697422663132144" lon="9.586918228086702"><ele>119.0</ele><time>2026-04-28T16:34:11.963Z</time></trkpt><trkpt lat="39.69759274528773" lon="9.586915257046474"><ele>119.0</ele><time>2026-04-28T16:34:12.963Z</time></trkpt><trkpt lat="39.697757825536584" lon="9.58691333094366"><ele>119.0</ele><time>2026-04-28T16:34:13.963Z</time></trkpt><trkpt lat="39.69792563943374" lon="9.586908941374569"><ele>119.0</ele><time>2026-04-28T16:34:14.963Z</time></trkpt><trkpt lat="39.69809515223301" lon="9.586911934859135"><ele>119.0</ele><time>2026-04-28T16:34:15.963Z</time></trkpt><trkpt lat="39.69825968278822" lon="9.586918300419978"><ele>119.0</ele><time>2026-04-28T16:34:16.963Z</time></trkpt><trkpt lat="39.69842498018249" lon="9.586918634847029"><ele>119.0</ele><time>2026-04-28T16:34:17.963Z</time></trkpt><trkpt lat="39.69859691425416" lon="9.58691473496985"><ele>119.0</ele><time>2026-04-28T16:34:18.963Z</time></trkpt><trkpt lat="39.69877197601638" lon="9.586908710521898"><ele>119.0</ele><time>2026-04-28T16:34:19.963Z</time></trkpt><trkpt lat="39.69894857840409" lon="9.586910730382208"><ele>119.0</ele><time>2026-04-28T16:34:20.963Z</time></trkpt><trkpt lat="39.69912774314791" lon="9.5869072205149"><ele>119.0</ele><time>2026-04-28T16:34:21.963Z</time></trkpt><trkpt lat="39.69930078070525" lon="9.586913692795079"><ele>119.0</ele><time>2026-04-28T16:34:22.963Z</time></trkpt><trkpt lat="39.699474710206914" lon="9.586907045237739"><ele>119.0</ele><time>2026-04-28T16:34:23.963Z</time></trkpt><trkpt lat="39.69965295487403" lon="9.586902824137297"><ele>119.33333333333333</ele><time>2026-04-28T16:34:24.963Z</time></trkpt><trkpt lat="39.69982921204206" lon="9.586898059356592"><ele>119.66666666666666</ele><time>2026-04-28T16:34:25.963Z</time></trkpt><trkpt lat="39.700005161006885" lon="9.586896003106146"><ele>120.0</ele><time>2026-04-28T16:34:26.963Z</time></trkpt><trkpt lat="39.70018583325117" lon="9.586894223948395"><ele>119.0</ele><time>2026-04-28T16:34:27.963Z</time></trkpt><trkpt lat="39.70036568738079" lon="9.58689465431861"><ele>118.0</ele><time>2026-04-28T16:34:28.963Z</time></trkpt><trkpt lat="39.70054568050734" lon="9.586891811432901"><ele>117.0</ele><time>2026-04-28T16:34:29.963Z</time></trkpt><trkpt lat="39.700725057758184" lon="9.586888323928067"><ele>117.0</ele><time>2026-04-28T16:34:30.963Z</time></trkpt><trkpt lat="39.70090331597008" lon="9.58688709438847"><ele>117.0</ele><time>2026-04-28T16:34:31.963Z</time></trkpt><trkpt lat="39.701077681994285" lon="9.586886361581735"><ele>117.0</ele><time>2026-04-28T16:34:32.963Z</time></trkpt><trkpt lat="39.70125278904747" lon="9.586887306238358"><ele>115.0</ele><time>2026-04-28T16:34:33.963Z</time></trkpt><trkpt lat="39.70142295393178" lon="9.586883299348347"><ele>113.0</ele><time>2026-04-28T16:34:34.963Z</time></trkpt><trkpt lat="39.701596797890296" lon="9.586880534453607"><ele>111.0</ele><time>2026-04-28T16:34:35.963Z</time></trkpt><trkpt lat="39.701770476820705" lon="9.586880516209643"><ele>112.33333333333334</ele><time>2026-04-28T16:34:36.963Z</time></trkpt><trkpt lat="39.70194030893235" lon="9.58688201368684"><ele>113.66666666666667</ele><time>2026-04-28T16:34:37.963Z</time></trkpt><trkpt lat="39.702113518034224" lon="9.586881491927137"><ele>115.0</ele><time>2026-04-28T16:34:38.963Z</time></trkpt><trkpt lat="39.70228935759678" lon="9.586882897988838"><ele>115.0</ele><time>2026-04-28T16:34:39.963Z</time></trkpt><trkpt lat="39.70246741844125" lon="9.586881217469497"><ele>115.0</ele><time>2026-04-28T16:34:40.963Z</time></trkpt><trkpt lat="39.70264649108823" lon="9.586881061418039"><ele>115.0</ele><time>2026-04-28T16:34:41.963Z</time></trkpt><trkpt lat="39.70282531749588" lon="9.586879647216078"><ele>115.66666666666667</ele><time>2026-04-28T16:34:42.963Z</time></trkpt><trkpt lat="39.70300523826729" lon="9.586880059768113"><ele>116.33333333333334</ele><time>2026-04-28T16:34:43.963Z</time></trkpt><trkpt lat="39.70318657084106" lon="9.586873739950493"><ele>117.0</ele><time>2026-04-28T16:34:44.963Z</time></trkpt><trkpt lat="39.703368533191664" lon="9.586869832283309"><ele>117.0</ele><time>2026-04-28T16:34:45.963Z</time></trkpt><trkpt lat="39.703550719818935" lon="9.586863776267572"><ele>117.0</ele><time>2026-04-28T16:34:46.963Z</time></trkpt><trkpt lat="39.70373840435865" lon="9.586864877262546"><ele>117.0</ele><time>2026-04-28T16:34:47.963Z</time></trkpt><trkpt lat="39.70391995601591" lon="9.586869810843586"><ele>117.33333333333334</ele><time>2026-04-28T16:34:48.963Z</time></trkpt><trkpt lat="39.704102458658674" lon="9.586874079542063"><ele>117.66666666666667</ele><time>2026-04-28T16:34:49.963Z</time></trkpt><trkpt lat="39.70428829447839" lon="9.586870500665325"><ele>118.0</ele><time>2026-04-28T16:34:50.963Z</time></trkpt><trkpt lat="39.70446916935694" lon="9.58686733227572"><ele>118.66666666666667</ele><time>2026-04-28T16:34:51.963Z</time></trkpt><trkpt lat="39.70465187635563" lon="9.586866319897997"><ele>119.33333333333334</ele><time>2026-04-28T16:34:52.963Z</time></trkpt><trkpt lat="39.70483905228983" lon="9.586864651029126"><ele>120.0</ele><time>2026-04-28T16:34:53.964Z</time></trkpt><trkpt lat="39.70502585372859" lon="9.586862326517398"><ele>120.0</ele><time>2026-04-28T16:34:54.964Z</time></trkpt><trkpt lat="39.705217509466515" lon="9.586862382082995"><ele>120.0</ele><time>2026-04-28T16:34:55.964Z</time></trkpt><trkpt lat="39.705406496100984" lon="9.586859434995263"><ele>120.0</ele><time>2026-04-28T16:34:56.964Z</time></trkpt><trkpt lat="39.70559159328683" lon="9.586854911340161"><ele>119.66666666666666</ele><time>2026-04-28T16:34:57.964Z</time></trkpt><trkpt lat="39.70578221666496" lon="9.58685246492964"><ele>119.33333333333333</ele><time>2026-04-28T16:34:58.964Z</time></trkpt><trkpt lat="39.705974491821706" lon="9.586848872127725"><ele>119.0</ele><time>2026-04-28T16:34:59.963Z</time></trkpt><trkpt lat="39.70616475161318" lon="9.586845869330523"><ele>119.0</ele><time>2026-04-28T16:35:00.963Z</time></trkpt><trkpt lat="39.70635644323765" lon="9.586845820581743"><ele>119.0</ele><time>2026-04-28T16:35:01.963Z</time></trkpt><trkpt lat="39.706551501988706" lon="9.586844218574605"><ele>119.0</ele><time>2026-04-28T16:35:02.964Z</time></trkpt><trkpt lat="39.70674969067342" lon="9.586834151468084"><ele>118.66666666666666</ele><time>2026-04-28T16:35:03.963Z</time></trkpt><trkpt lat="39.70694342568052" lon="9.58683035369443"><ele>118.33333333333334</ele><time>2026-04-28T16:35:04.963Z</time></trkpt><trkpt lat="39.707137860182904" lon="9.586821256074831"><ele>118.0</ele><time>2026-04-28T16:35:05.964Z</time></trkpt><trkpt lat="39.70733360609859" lon="9.586813786309339"><ele>118.0</ele><time>2026-04-28T16:35:06.963Z</time></trkpt><trkpt lat="39.70752781297713" lon="9.586815298145627"><ele>118.0</ele><time>2026-04-28T16:35:07.963Z</time></trkpt><trkpt lat="39.70772726938772" lon="9.586812617516232"><ele>118.0</ele><time>2026-04-28T16:35:08.963Z</time></trkpt><trkpt lat="39.70792406772142" lon="9.586810915135702"><ele>117.66666666666667</ele><time>2026-04-28T16:35:09.963Z</time></trkpt><trkpt lat="39.70812223207232" lon="9.586808293722155"><ele>117.33333333333334</ele><time>2026-04-28T16:35:10.963Z</time></trkpt><trkpt lat="39.708321618838" lon="9.586803475391443"><ele>117.0</ele><time>2026-04-28T16:35:11.963Z</time></trkpt><trkpt lat="39.70852450593393" lon="9.586801492655193"><ele>117.33333333333334</ele><time>2026-04-28T16:35:12.963Z</time></trkpt><trkpt lat="39.70872417953716" lon="9.586801792389474"><ele>117.66666666666667</ele><time>2026-04-28T16:35:13.963Z</time></trkpt><trkpt lat="39.70892552277769" lon="9.58680316902918"><ele>118.0</ele><time>2026-04-28T16:35:14.963Z</time></trkpt><trkpt lat="39.70912696511143" lon="9.586797874164363"><ele>118.0</ele><time>2026-04-28T16:35:15.963Z</time></trkpt><trkpt lat="39.70933145955741" lon="9.586795162057372"><ele>118.0</ele><time>2026-04-28T16:35:16.963Z</time></trkpt><trkpt lat="39.70953670209609" lon="9.586796874907007"><ele>118.0</ele><time>2026-04-28T16:35:17.963Z</time></trkpt><trkpt lat="39.70975417478692" lon="9.586795078950933"><ele>119.33333333333334</ele><time>2026-04-28T16:35:18.963Z</time></trkpt><trkpt lat="39.70996991462809" lon="9.586789333330682"><ele>120.66666666666666</ele><time>2026-04-28T16:35:19.963Z</time></trkpt><trkpt lat="39.71018290106439" lon="9.586787851974075"><ele>122.0</ele><time>2026-04-28T16:35:20.963Z</time></trkpt><trkpt lat="39.71039721867162" lon="9.586783663453591"><ele>122.66666666666666</ele><time>2026-04-28T16:35:21.963Z</time></trkpt><trkpt lat="39.710611000511285" lon="9.586779228316603"><ele>123.33333333333334</ele><time>2026-04-28T16:35:22.963Z</time></trkpt><trkpt lat="39.71082386318381" lon="9.586775160717071"><ele>124.0</ele><time>2026-04-28T16:35:23.963Z</time></trkpt><trkpt lat="39.71103700671408" lon="9.586774595389539"><ele>124.66666666666667</ele><time>2026-04-28T16:35:24.963Z</time></trkpt><trkpt lat="39.71125017404914" lon="9.586775207461589"><ele>125.33333333333334</ele><time>2026-04-28T16:35:25.963Z</time></trkpt><trkpt lat="39.7114611868444" lon="9.586775843913363"><ele>126.0</ele><time>2026-04-28T16:35:26.963Z</time></trkpt><trkpt lat="39.71167198599481" lon="9.586774716785982"><ele>126.0</ele><time>2026-04-28T16:35:27.963Z</time></trkpt><trkpt lat="39.71188245718468" lon="9.586771000598178"><ele>126.0</ele><time>2026-04-28T16:35:28.964Z</time></trkpt><trkpt lat="39.7120941236429" lon="9.586768292183061"><ele>126.0</ele><time>2026-04-28T16:35:29.964Z</time></trkpt><trkpt lat="39.71230426059511" lon="9.58676571333244"><ele>125.66666666666666</ele><time>2026-04-28T16:35:30.964Z</time></trkpt><trkpt lat="39.71251230649174" lon="9.586763477669669"><ele>125.33333333333333</ele><time>2026-04-28T16:35:31.964Z</time></trkpt><trkpt lat="39.71271822826968" lon="9.586753810817594"><ele>125.0</ele><time>2026-04-28T16:35:32.964Z</time></trkpt><trkpt lat="39.712925247520964" lon="9.586733139810022"><ele>125.0</ele><time>2026-04-28T16:35:33.964Z</time></trkpt><trkpt lat="39.7131319654531" lon="9.586705737994002"><ele>125.0</ele><time>2026-04-28T16:35:34.964Z</time></trkpt><trkpt lat="39.71333993390332" lon="9.586669850076207"><ele>125.0</ele><time>2026-04-28T16:35:35.964Z</time></trkpt><trkpt lat="39.71354681733012" lon="9.586620569928948"><ele>125.33333333333333</ele><time>2026-04-28T16:35:36.964Z</time></trkpt><trkpt lat="39.713754132794236" lon="9.586563435967335"><ele>125.66666666666666</ele><time>2026-04-28T16:35:37.964Z</time></trkpt><trkpt lat="39.713960763979586" lon="9.586500987920658"><ele>126.0</ele><time>2026-04-28T16:35:38.964Z</time></trkpt><trkpt lat="39.71416727412499" lon="9.586428882682696"><ele>126.0</ele><time>2026-04-28T16:35:39.964Z</time></trkpt><trkpt lat="39.714370934737545" lon="9.58635077351177"><ele>126.0</ele><time>2026-04-28T16:35:40.964Z</time></trkpt><trkpt lat="39.71457078077081" lon="9.586262925102782"><ele>126.0</ele><time>2026-04-28T16:35:41.964Z</time></trkpt><trkpt lat="39.714770577913235" lon="9.586162941627048"><ele>125.66666666666666</ele><time>2026-04-28T16:35:42.964Z</time></trkpt><trkpt lat="39.714964951545454" lon="9.586056648364023"><ele>125.33333333333333</ele><time>2026-04-28T16:35:43.964Z</time></trkpt><trkpt lat="39.71515425940666" lon="9.585946487378925"><ele>125.0</ele><time>2026-04-28T16:35:44.964Z</time></trkpt><trkpt lat="39.71532931868897" lon="9.585840125080638"><ele>125.0</ele><time>2026-04-28T16:35:45.964Z</time></trkpt><trkpt lat="39.71548776491437" lon="9.585738454383069"><ele>125.0</ele><time>2026-04-28T16:35:46.964Z</time></trkpt><trkpt lat="39.71563427442361" lon="9.58564302226827"><ele>125.0</ele><time>2026-04-28T16:35:47.964Z</time></trkpt><trkpt lat="39.71577034645621" lon="9.585554431505766"><ele>125.0</ele><time>2026-04-28T16:35:48.964Z</time></trkpt><trkpt lat="39.715891078149475" lon="9.585475369425772"><ele>125.0</ele><time>2026-04-28T16:35:49.964Z</time></trkpt><trkpt lat="39.71599665697947" lon="9.585409623635286"><ele>125.0</ele><time>2026-04-28T16:35:50.964Z</time></trkpt><trkpt lat="39.716087704789956" lon="9.58536314874815"><ele>125.0</ele><time>2026-04-28T16:35:51.964Z</time></trkpt><trkpt lat="39.71616569731128" lon="9.585341317199637"><ele>125.0</ele><time>2026-04-28T16:35:52.964Z</time></trkpt><trkpt lat="39.716231524562424" lon="9.585271394220191"><ele>124.99999999999999</ele><time>2026-04-28T16:35:54.964Z</time></trkpt><trkpt lat="39.71627677765705" lon="9.585214465264707"><ele>125.0</ele><time>2026-04-28T16:35:59.964Z</time></trkpt><trkpt lat="39.71633940643517" lon="9.585155540609621"><ele>125.0</ele><time>2026-04-28T16:36:09.964Z</time></trkpt><trkpt lat="39.71639587908285" lon="9.585102408180664"><ele>125.0</ele><time>2026-04-28T16:36:11.964Z</time></trkpt><trkpt lat="39.71646274995866" lon="9.585233566658498"><ele>124.99999999999999</ele><time>2026-04-28T16:36:18.964Z</time></trkpt><trkpt lat="39.7164343081851" lon="9.585311841914137"><ele>125.0</ele><time>2026-04-28T16:36:21.965Z</time></trkpt><trkpt lat="39.71640777227305" lon="9.585446165841875"><ele>124.99999999999999</ele><time>2026-04-28T16:37:11.965Z</time></trkpt><trkpt lat="39.71634424998033" lon="9.585405067221135"><ele>125.0</ele><time>2026-04-28T16:37:15.966Z</time></trkpt><trkpt lat="39.716373711334505" lon="9.585294157955158"><ele>125.0</ele><time>2026-04-28T16:37:17.966Z</time></trkpt><trkpt lat="39.71642520216907" lon="9.585230952819302"><ele>125.0</ele><time>2026-04-28T16:37:18.966Z</time></trkpt><trkpt lat="39.71647171419512" lon="9.58515612843888"><ele>124.99999999999999</ele><time>2026-04-28T16:37:19.966Z</time></trkpt><trkpt lat="39.716507333262996" lon="9.585053605879231"><ele>125.0</ele><time>2026-04-28T16:37:20.966Z</time></trkpt><trkpt lat="39.71654192815544" lon="9.584949262150671"><ele>124.6</ele><time>2026-04-28T16:37:21.966Z</time></trkpt><trkpt lat="39.716577679935966" lon="9.584856756563507"><ele>124.2</ele><time>2026-04-28T16:37:22.966Z</time></trkpt><trkpt lat="39.71663010065501" lon="9.584770207528484"><ele>123.80000000000001</ele><time>2026-04-28T16:37:23.966Z</time></trkpt><trkpt lat="39.716697330229486" lon="9.584689784285786"><ele>123.4</ele><time>2026-04-28T16:37:24.966Z</time></trkpt><trkpt lat="39.716778476045285" lon="9.584609909884769"><ele>123.0</ele><time>2026-04-28T16:37:25.966Z</time></trkpt><trkpt lat="39.716866910465605" lon="9.584525680901466"><ele>123.25</ele><time>2026-04-28T16:37:26.966Z</time></trkpt><trkpt lat="39.71696127480339" lon="9.584433569981398"><ele>123.5</ele><time>2026-04-28T16:37:27.966Z</time></trkpt><trkpt lat="39.71706321794686" lon="9.584328766338308"><ele>123.75</ele><time>2026-04-28T16:37:28.966Z</time></trkpt><trkpt lat="39.71717234111452" lon="9.584219765391028"><ele>124.0</ele><time>2026-04-28T16:37:29.966Z</time></trkpt><trkpt lat="39.71728396953946" lon="9.584111841962066"><ele>124.0</ele><time>2026-04-28T16:37:30.966Z</time></trkpt><trkpt lat="39.717401067182244" lon="9.583996941875519"><ele>124.0</ele><time>2026-04-28T16:37:31.966Z</time></trkpt><trkpt lat="39.71752427021585" lon="9.583876291376155"><ele>124.0</ele><time>2026-04-28T16:37:32.966Z</time></trkpt><trkpt lat="39.71765212386846" lon="9.583752490337933"><ele>124.0</ele><time>2026-04-28T16:37:33.966Z</time></trkpt><trkpt lat="39.71778286944432" lon="9.583622103782904"><ele>124.0</ele><time>2026-04-28T16:37:34.966Z</time></trkpt><trkpt lat="39.717918445083946" lon="9.58348682777113"><ele>124.0</ele><time>2026-04-28T16:37:35.966Z</time></trkpt><trkpt lat="39.71805031362154" lon="9.583355127128252"><ele>124.0</ele><time>2026-04-28T16:37:36.966Z</time></trkpt><trkpt lat="39.718186136455294" lon="9.583224294842188"><ele>124.0</ele><time>2026-04-28T16:37:37.966Z</time></trkpt><trkpt lat="39.71832404618981" lon="9.5830919515395"><ele>124.0</ele><time>2026-04-28T16:37:38.966Z</time></trkpt><trkpt lat="39.718466823573785" lon="9.582961067286776"><ele>124.66666666666667</ele><time>2026-04-28T16:37:39.966Z</time></trkpt><trkpt lat="39.718612752640745" lon="9.58282949047096"><ele>125.33333333333334</ele><time>2026-04-28T16:37:40.966Z</time></trkpt><trkpt lat="39.71876271637244" lon="9.582700079006965"><ele>126.0</ele><time>2026-04-28T16:37:41.966Z</time></trkpt><trkpt lat="39.718917422499466" lon="9.582575668929625"><ele>126.0</ele><time>2026-04-28T16:37:42.966Z</time></trkpt><trkpt lat="39.7190738079005" lon="9.582456093954667"><ele>126.0</ele><time>2026-04-28T16:37:43.966Z</time></trkpt><trkpt lat="39.719237016756736" lon="9.582345268597066"><ele>126.0</ele><time>2026-04-28T16:37:44.966Z</time></trkpt><trkpt lat="39.71940474606923" lon="9.582243180061274"><ele>126.0</ele><time>2026-04-28T16:37:45.966Z</time></trkpt><trkpt lat="39.71957750421813" lon="9.582150051715399"><ele>126.0</ele><time>2026-04-28T16:37:46.966Z</time></trkpt><trkpt lat="39.7197570817311" lon="9.58206622832974"><ele>126.0</ele><time>2026-04-28T16:37:47.966Z</time></trkpt><trkpt lat="39.71993783750969" lon="9.581990724001878"><ele>126.0</ele><time>2026-04-28T16:37:48.966Z</time></trkpt><trkpt lat="39.72012515253758" lon="9.581919672042993"><ele>126.0</ele><time>2026-04-28T16:37:49.966Z</time></trkpt><trkpt lat="39.72031135550862" lon="9.581860984771064"><ele>126.0</ele><time>2026-04-28T16:37:50.966Z</time></trkpt><trkpt lat="39.720499082184986" lon="9.581815208742325"><ele>126.0</ele><time>2026-04-28T16:37:51.966Z</time></trkpt><trkpt lat="39.72069398649735" lon="9.581776602813173"><ele>126.0</ele><time>2026-04-28T16:37:52.967Z</time></trkpt><trkpt lat="39.72088854762507" lon="9.581748628592845"><ele>126.0</ele><time>2026-04-28T16:37:53.967Z</time></trkpt><trkpt lat="39.72107697940998" lon="9.581732843209325"><ele>126.66666666666666</ele><time>2026-04-28T16:37:54.967Z</time></trkpt><trkpt lat="39.721266113980235" lon="9.581719977272996"><ele>127.33333333333333</ele><time>2026-04-28T16:37:55.967Z</time></trkpt><trkpt lat="39.721459723053215" lon="9.581709011665343"><ele>128.0</ele><time>2026-04-28T16:37:56.967Z</time></trkpt><trkpt lat="39.7216471613754" lon="9.581691658975188"><ele>128.0</ele><time>2026-04-28T16:37:57.967Z</time></trkpt><trkpt lat="39.721816817878334" lon="9.581679321957246"><ele>128.0</ele><time>2026-04-28T16:37:58.967Z</time></trkpt><trkpt lat="39.72197610502369" lon="9.581668256767191"><ele>128.0</ele><time>2026-04-28T16:37:59.967Z</time></trkpt><trkpt lat="39.72213408694883" lon="9.58164886842958"><ele>128.0</ele><time>2026-04-28T16:38:00.967Z</time></trkpt><trkpt lat="39.72228657246541" lon="9.58162645218704"><ele>128.0</ele><time>2026-04-28T16:38:01.967Z</time></trkpt><trkpt lat="39.72244247434072" lon="9.581601318721386"><ele>128.0</ele><time>2026-04-28T16:38:02.967Z</time></trkpt><trkpt lat="39.72259930818055" lon="9.58157250429896"><ele>128.0</ele><time>2026-04-28T16:38:03.967Z</time></trkpt><trkpt lat="39.72275888337718" lon="9.581542240841127"><ele>128.0</ele><time>2026-04-28T16:38:04.967Z</time></trkpt><trkpt lat="39.722924469242834" lon="9.581503305666345"><ele>128.0</ele><time>2026-04-28T16:38:05.967Z</time></trkpt><trkpt lat="39.72309744214624" lon="9.581457606696254"><ele>128.0</ele><time>2026-04-28T16:38:06.967Z</time></trkpt><trkpt lat="39.723272789483936" lon="9.581403533216106"><ele>128.0</ele><time>2026-04-28T16:38:07.967Z</time></trkpt><trkpt lat="39.72344830455269" lon="9.581340745019801"><ele>128.0</ele><time>2026-04-28T16:38:08.967Z</time></trkpt><trkpt lat="39.72361831419869" lon="9.581268051310868"><ele>128.33333333333331</ele><time>2026-04-28T16:38:09.967Z</time></trkpt><trkpt lat="39.723790867199476" lon="9.581190860782032"><ele>128.66666666666666</ele><time>2026-04-28T16:38:10.967Z</time></trkpt><trkpt lat="39.723965706720634" lon="9.581112706325566"><ele>129.0</ele><time>2026-04-28T16:38:11.967Z</time></trkpt><trkpt lat="39.72414081565653" lon="9.581031139893115"><ele>129.33333333333334</ele><time>2026-04-28T16:38:12.967Z</time></trkpt><trkpt lat="39.724313037335214" lon="9.580946375671866"><ele>129.66666666666669</ele><time>2026-04-28T16:38:13.967Z</time></trkpt><trkpt lat="39.72448671336194" lon="9.580862281739194"><ele>130.0</ele><time>2026-04-28T16:38:14.967Z</time></trkpt><trkpt lat="39.72465842899421" lon="9.580778327978987"><ele>130.66666666666669</ele><time>2026-04-28T16:38:15.967Z</time></trkpt><trkpt lat="39.7248276701871" lon="9.580697971219497"><ele>131.33333333333334</ele><time>2026-04-28T16:38:16.967Z</time></trkpt><trkpt lat="39.72499436012156" lon="9.580617904013344"><ele>132.0</ele><time>2026-04-28T16:38:17.967Z</time></trkpt><trkpt lat="39.72516601673791" lon="9.58053418218177"><ele>132.66666666666666</ele><time>2026-04-28T16:38:18.967Z</time></trkpt><trkpt lat="39.72534607830037" lon="9.580451315459795"><ele>133.33333333333331</ele><time>2026-04-28T16:38:19.967Z</time></trkpt><trkpt lat="39.72552260886456" lon="9.580369690404561"><ele>134.0</ele><time>2026-04-28T16:38:20.967Z</time></trkpt><trkpt lat="39.72570025594325" lon="9.580292350527735"><ele>134.33333333333331</ele><time>2026-04-28T16:38:21.967Z</time></trkpt><trkpt lat="39.72587543203215" lon="9.580214150655765"><ele>134.66666666666666</ele><time>2026-04-28T16:38:22.967Z</time></trkpt><trkpt lat="39.72605584423781" lon="9.580134911605489"><ele>135.0</ele><time>2026-04-28T16:38:23.967Z</time></trkpt><trkpt lat="39.72623448823796" lon="9.58006004054524"><ele>135.0</ele><time>2026-04-28T16:38:24.967Z</time></trkpt><trkpt lat="39.7264126873434" lon="9.579990041073554"><ele>135.0</ele><time>2026-04-28T16:38:25.967Z</time></trkpt><trkpt lat="39.72659415105547" lon="9.579917977464905"><ele>135.0</ele><time>2026-04-28T16:38:26.967Z</time></trkpt><trkpt lat="39.72678013388834" lon="9.579852590462938"><ele>135.0</ele><time>2026-04-28T16:38:27.967Z</time></trkpt><trkpt lat="39.72696645798953" lon="9.579788866808322"><ele>135.0</ele><time>2026-04-28T16:38:28.967Z</time></trkpt><trkpt lat="39.72714893100647" lon="9.579722847217077"><ele>135.0</ele><time>2026-04-28T16:38:29.967Z</time></trkpt><trkpt lat="39.72732958839988" lon="9.579659997930644"><ele>135.0</ele><time>2026-04-28T16:38:30.967Z</time></trkpt><trkpt lat="39.727515492762464" lon="9.579600593128477"><ele>135.0</ele><time>2026-04-28T16:38:31.967Z</time></trkpt><trkpt lat="39.727706419573025" lon="9.579535747498657"><ele>135.0</ele><time>2026-04-28T16:38:32.967Z</time></trkpt><trkpt lat="39.727899244165314" lon="9.579479518193212"><ele>136.66666666666666</ele><time>2026-04-28T16:38:33.967Z</time></trkpt><trkpt lat="39.72809398393976" lon="9.579423709145706"><ele>138.33333333333331</ele><time>2026-04-28T16:38:34.967Z</time></trkpt><trkpt lat="39.72828976813672" lon="9.579370998874653"><ele>140.0</ele><time>2026-04-28T16:38:35.967Z</time></trkpt><trkpt lat="39.72848598515125" lon="9.579318774939257"><ele>139.0</ele><time>2026-04-28T16:38:36.967Z</time></trkpt><trkpt lat="39.72868392398555" lon="9.579263652541114"><ele>138.0</ele><time>2026-04-28T16:38:37.967Z</time></trkpt><trkpt lat="39.72887860641253" lon="9.579209939524443"><ele>137.0</ele><time>2026-04-28T16:38:38.967Z</time></trkpt><trkpt lat="39.7290741215402" lon="9.579153920135738"><ele>137.0</ele><time>2026-04-28T16:38:39.967Z</time></trkpt><trkpt lat="39.7292672600912" lon="9.579097666342477"><ele>137.0</ele><time>2026-04-28T16:38:40.967Z</time></trkpt><trkpt lat="39.72946061274466" lon="9.57904170548292"><ele>137.0</ele><time>2026-04-28T16:38:41.967Z</time></trkpt><trkpt lat="39.72965412620319" lon="9.578986479208325"><ele>136.0</ele><time>2026-04-28T16:38:42.967Z</time></trkpt><trkpt lat="39.729847484747296" lon="9.578934271348674"><ele>135.0</ele><time>2026-04-28T16:38:43.967Z</time></trkpt><trkpt lat="39.730040835974854" lon="9.578881901957812"><ele>134.0</ele><time>2026-04-28T16:38:44.968Z</time></trkpt><trkpt lat="39.730232576799146" lon="9.57882603346113"><ele>134.0</ele><time>2026-04-28T16:38:45.968Z</time></trkpt><trkpt lat="39.7304237985515" lon="9.57877112878021"><ele>134.0</ele><time>2026-04-28T16:38:46.968Z</time></trkpt><trkpt lat="39.73061542018256" lon="9.578714714155009"><ele>134.0</ele><time>2026-04-28T16:38:47.968Z</time></trkpt><trkpt lat="39.730807989065795" lon="9.578661947755608"><ele>134.66666666666666</ele><time>2026-04-28T16:38:48.968Z</time></trkpt><trkpt lat="39.73100201501601" lon="9.578605833826597"><ele>135.33333333333334</ele><time>2026-04-28T16:38:49.968Z</time></trkpt><trkpt lat="39.73119755773426" lon="9.57854908177122"><ele>136.0</ele><time>2026-04-28T16:38:50.968Z</time></trkpt><trkpt lat="39.7313949235338" lon="9.578493782878322"><ele>137.0</ele><time>2026-04-28T16:38:51.968Z</time></trkpt><trkpt lat="39.73159109228113" lon="9.578440830185919"><ele>138.0</ele><time>2026-04-28T16:38:52.968Z</time></trkpt><trkpt lat="39.73178908288544" lon="9.578387181890406"><ele>139.0</ele><time>2026-04-28T16:38:53.968Z</time></trkpt><trkpt lat="39.731986477958095" lon="9.578333634831639"><ele>139.33333333333334</ele><time>2026-04-28T16:38:54.968Z</time></trkpt><trkpt lat="39.73218442220151" lon="9.578282089461924"><ele>139.66666666666666</ele><time>2026-04-28T16:38:55.968Z</time></trkpt><trkpt lat="39.73238431285652" lon="9.578234653793583"><ele>140.0</ele><time>2026-04-28T16:38:56.968Z</time></trkpt><trkpt lat="39.73258505840858" lon="9.578186245317367"><ele>139.66666666666666</ele><time>2026-04-28T16:38:57.968Z</time></trkpt><trkpt lat="39.732787898250265" lon="9.578145916753137"><ele>139.33333333333334</ele><time>2026-04-28T16:38:58.968Z</time></trkpt><trkpt lat="39.73299277420718" lon="9.57810351419361"><ele>139.0</ele><time>2026-04-28T16:38:59.968Z</time></trkpt><trkpt lat="39.73319800135581" lon="9.578063049759079"><ele>139.0</ele><time>2026-04-28T16:39:00.968Z</time></trkpt><trkpt lat="39.73340240336602" lon="9.57802588024452"><ele>139.0</ele><time>2026-04-28T16:39:01.968Z</time></trkpt><trkpt lat="39.733604486982784" lon="9.577992482082298"><ele>139.0</ele><time>2026-04-28T16:39:02.968Z</time></trkpt><trkpt lat="39.733809954243945" lon="9.577964724931181"><ele>139.0</ele><time>2026-04-28T16:39:03.968Z</time></trkpt><trkpt lat="39.734014788429654" lon="9.577938597552151"><ele>139.0</ele><time>2026-04-28T16:39:04.968Z</time></trkpt><trkpt lat="39.73421938879425" lon="9.577912395963743"><ele>139.0</ele><time>2026-04-28T16:39:05.968Z</time></trkpt><trkpt lat="39.73442353706879" lon="9.577892356653948"><ele>139.66666666666669</ele><time>2026-04-28T16:39:06.968Z</time></trkpt><trkpt lat="39.73462740337322" lon="9.577873255322064"><ele>140.33333333333334</ele><time>2026-04-28T16:39:07.968Z</time></trkpt><trkpt lat="39.7348316627978" lon="9.577859858762226"><ele>141.0</ele><time>2026-04-28T16:39:08.967Z</time></trkpt><trkpt lat="39.73503579055288" lon="9.577851173800138"><ele>141.33333333333334</ele><time>2026-04-28T16:39:09.968Z</time></trkpt><trkpt lat="39.7352408392881" lon="9.577845230109437"><ele>141.66666666666669</ele><time>2026-04-28T16:39:10.968Z</time></trkpt><trkpt lat="39.735444095029585" lon="9.577842701228636"><ele>142.0</ele><time>2026-04-28T16:39:11.967Z</time></trkpt><trkpt lat="39.735647534673085" lon="9.577841741919"><ele>142.0</ele><time>2026-04-28T16:39:12.968Z</time></trkpt><trkpt lat="39.735849177019155" lon="9.577837834304164"><ele>142.0</ele><time>2026-04-28T16:39:13.968Z</time></trkpt><trkpt lat="39.73605517166029" lon="9.577841547060391"><ele>142.0</ele><time>2026-04-28T16:39:14.968Z</time></trkpt><trkpt lat="39.7362610298584" lon="9.577850624810674"><ele>141.33333333333334</ele><time>2026-04-28T16:39:15.967Z</time></trkpt><trkpt lat="39.7364646053879" lon="9.577860412110573"><ele>140.66666666666666</ele><time>2026-04-28T16:39:16.967Z</time></trkpt><trkpt lat="39.736669087171045" lon="9.577872914073415"><ele>140.0</ele><time>2026-04-28T16:39:17.967Z</time></trkpt><trkpt lat="39.736870061826565" lon="9.577883962692177"><ele>141.0</ele><time>2026-04-28T16:39:18.968Z</time></trkpt><trkpt lat="39.737074986332566" lon="9.577898878661994"><ele>142.0</ele><time>2026-04-28T16:39:19.968Z</time></trkpt><trkpt lat="39.73728290218995" lon="9.577910012277398"><ele>143.0</ele><time>2026-04-28T16:39:20.967Z</time></trkpt><trkpt lat="39.73748978522255" lon="9.577925289971988"><ele>143.0</ele><time>2026-04-28T16:39:21.967Z</time></trkpt><trkpt lat="39.737693433597144" lon="9.577941918855295"><ele>143.0</ele><time>2026-04-28T16:39:22.967Z</time></trkpt><trkpt lat="39.737896042077715" lon="9.577958696925537"><ele>143.0</ele><time>2026-04-28T16:39:23.967Z</time></trkpt><trkpt lat="39.73809891246272" lon="9.577978715857009"><ele>143.33333333333331</ele><time>2026-04-28T16:39:24.967Z</time></trkpt><trkpt lat="39.7382980134022" lon="9.577992520000835"><ele>143.66666666666666</ele><time>2026-04-28T16:39:25.967Z</time></trkpt><trkpt lat="39.738496834071675" lon="9.578008018572595"><ele>144.0</ele><time>2026-04-28T16:39:26.967Z</time></trkpt><trkpt lat="39.738693998652636" lon="9.57802906533045"><ele>144.0</ele><time>2026-04-28T16:39:27.967Z</time></trkpt><trkpt lat="39.73889066132225" lon="9.57805626479523"><ele>144.0</ele><time>2026-04-28T16:39:28.967Z</time></trkpt><trkpt lat="39.739087872379955" lon="9.578087577999739"><ele>144.0</ele><time>2026-04-28T16:39:29.967Z</time></trkpt><trkpt lat="39.7392852189356" lon="9.578123517580094"><ele>144.66666666666666</ele><time>2026-04-28T16:39:30.967Z</time></trkpt><trkpt lat="39.73947968602989" lon="9.578167725943564"><ele>145.33333333333331</ele><time>2026-04-28T16:39:31.968Z</time></trkpt><trkpt lat="39.739673009503534" lon="9.578216573444877"><ele>146.0</ele><time>2026-04-28T16:39:32.968Z</time></trkpt><trkpt lat="39.73986787133574" lon="9.578265504982141"><ele>146.0</ele><time>2026-04-28T16:39:33.968Z</time></trkpt><trkpt lat="39.74006199839568" lon="9.578317749117506"><ele>146.0</ele><time>2026-04-28T16:39:34.968Z</time></trkpt><trkpt lat="39.740258180341975" lon="9.578373382986161"><ele>146.0</ele><time>2026-04-28T16:39:35.968Z</time></trkpt><trkpt lat="39.7404533012026" lon="9.578429250496153"><ele>146.33333333333331</ele><time>2026-04-28T16:39:36.968Z</time></trkpt><trkpt lat="39.740645290849805" lon="9.578487084469122"><ele>146.66666666666666</ele><time>2026-04-28T16:39:37.968Z</time></trkpt><trkpt lat="39.74082863289072" lon="9.578545335348513"><ele>147.0</ele><time>2026-04-28T16:39:38.968Z</time></trkpt><trkpt lat="39.740994590444096" lon="9.578603106851274"><ele>147.66666666666666</ele><time>2026-04-28T16:39:39.968Z</time></trkpt><trkpt lat="39.74115551048802" lon="9.578656643369323"><ele>148.33333333333331</ele><time>2026-04-28T16:39:40.968Z</time></trkpt><trkpt lat="39.741319920158205" lon="9.578708665142184"><ele>149.0</ele><time>2026-04-28T16:39:41.968Z</time></trkpt><trkpt lat="39.741478320253655" lon="9.578752449889098"><ele>149.0</ele><time>2026-04-28T16:39:42.968Z</time></trkpt><trkpt lat="39.741625812125" lon="9.57880181647271"><ele>149.0</ele><time>2026-04-28T16:39:43.968Z</time></trkpt><trkpt lat="39.74175379080376" lon="9.578845141709715"><ele>149.0</ele><time>2026-04-28T16:39:44.968Z</time></trkpt><trkpt lat="39.74185330447176" lon="9.578891889359008"><ele>149.0</ele><time>2026-04-28T16:39:45.968Z</time></trkpt><trkpt lat="39.74194293449972" lon="9.578949618158543"><ele>149.5</ele><time>2026-04-28T16:39:46.968Z</time></trkpt><trkpt lat="39.74202531430688" lon="9.579037671966109"><ele>150.0</ele><time>2026-04-28T16:39:47.968Z</time></trkpt><trkpt lat="39.74209565515466" lon="9.579144451625115"><ele>150.5</ele><time>2026-04-28T16:39:48.968Z</time></trkpt><trkpt lat="39.74215069807807" lon="9.579278900596611"><ele>151.0</ele><time>2026-04-28T16:39:49.968Z</time></trkpt><trkpt lat="39.74219951418078" lon="9.57943070050697"><ele>153.25</ele><time>2026-04-28T16:39:50.968Z</time></trkpt><trkpt lat="39.74224223598623" lon="9.579596310965785"><ele>155.5</ele><time>2026-04-28T16:39:51.968Z</time></trkpt><trkpt lat="39.74229235199131" lon="9.579753893894935"><ele>157.75</ele><time>2026-04-28T16:39:52.968Z</time></trkpt><trkpt lat="39.742336269122795" lon="9.579905573117752"><ele>160.0</ele><time>2026-04-28T16:39:53.968Z</time></trkpt><trkpt lat="39.742402609354535" lon="9.580027333914755"><ele>160.0</ele><time>2026-04-28T16:39:54.968Z</time></trkpt><trkpt lat="39.742477159473054" lon="9.580120328249208"><ele>160.0</ele><time>2026-04-28T16:39:55.968Z</time></trkpt><trkpt lat="39.74257161705914" lon="9.580165661469842"><ele>160.0</ele><time>2026-04-28T16:39:56.968Z</time></trkpt><trkpt lat="39.742664202077215" lon="9.580166298857833"><ele>160.0</ele><time>2026-04-28T16:39:57.968Z</time></trkpt><trkpt lat="39.74274915668294" lon="9.580156424668035"><ele>160.0</ele><time>2026-04-28T16:39:58.968Z</time></trkpt><trkpt lat="39.74283136458898" lon="9.58011398673152"><ele>160.0</ele><time>2026-04-28T16:39:59.968Z</time></trkpt><trkpt lat="39.74290015056278" lon="9.580035187847166"><ele>160.0</ele><time>2026-04-28T16:40:00.968Z</time></trkpt><trkpt lat="39.74295236133155" lon="9.579922491570525"><ele>160.0</ele><time>2026-04-28T16:40:01.968Z</time></trkpt><trkpt lat="39.74298886178733" lon="9.57979488280717"><ele>160.0</ele><time>2026-04-28T16:40:02.968Z</time></trkpt><trkpt lat="39.74300663598971" lon="9.579658130007665"><ele>160.0</ele><time>2026-04-28T16:40:03.968Z</time></trkpt><trkpt lat="39.74300971695199" lon="9.579507144356647"><ele>158.25</ele><time>2026-04-28T16:40:04.968Z</time></trkpt><trkpt lat="39.74300124720622" lon="9.579341626814406"><ele>156.5</ele><time>2026-04-28T16:40:05.968Z</time></trkpt><trkpt lat="39.74298973722692" lon="9.579165236914214"><ele>154.75</ele><time>2026-04-28T16:40:06.968Z</time></trkpt><trkpt lat="39.74297082834483" lon="9.578972961990655"><ele>153.0</ele><time>2026-04-28T16:40:07.968Z</time></trkpt><trkpt lat="39.7429327550798" lon="9.578769367209444"><ele>151.66666666666666</ele><time>2026-04-28T16:40:08.968Z</time></trkpt><trkpt lat="39.742889026595805" lon="9.578554704346871"><ele>150.33333333333331</ele><time>2026-04-28T16:40:09.968Z</time></trkpt><trkpt lat="39.742843879612984" lon="9.578337000603007"><ele>149.0</ele><time>2026-04-28T16:40:10.968Z</time></trkpt><trkpt lat="39.74279295040867" lon="9.578105332881712"><ele>149.0</ele><time>2026-04-28T16:40:11.968Z</time></trkpt><trkpt lat="39.7427448116842" lon="9.577871658221005"><ele>149.0</ele><time>2026-04-28T16:40:12.968Z</time></trkpt><trkpt lat="39.74269462142742" lon="9.577633184885165"><ele>149.0</ele><time>2026-04-28T16:40:13.968Z</time></trkpt><trkpt lat="39.74264483481962" lon="9.57739171678218"><ele>149.0</ele><time>2026-04-28T16:40:14.968Z</time></trkpt><trkpt lat="39.74259817177665" lon="9.57716027525657"><ele>149.0</ele><time>2026-04-28T16:40:15.968Z</time></trkpt><trkpt lat="39.74255162966107" lon="9.576943850888625"><ele>149.0</ele><time>2026-04-28T16:40:16.968Z</time></trkpt><trkpt lat="39.74250916106631" lon="9.576738688110286"><ele>149.25</ele><time>2026-04-28T16:40:17.968Z</time></trkpt><trkpt lat="39.742477522939815" lon="9.576556523108358"><ele>149.5</ele><time>2026-04-28T16:40:18.968Z</time></trkpt><trkpt lat="39.742458417480506" lon="9.57639696544802"><ele>149.75</ele><time>2026-04-28T16:40:19.968Z</time></trkpt><trkpt lat="39.74245378426663" lon="9.576253857878703"><ele>150.0</ele><time>2026-04-28T16:40:20.968Z</time></trkpt><trkpt lat="39.742469299071715" lon="9.576130747988998"><ele>150.16666666666666</ele><time>2026-04-28T16:40:21.968Z</time></trkpt><trkpt lat="39.742479985857415" lon="9.576026604196532"><ele>150.33333333333334</ele><time>2026-04-28T16:40:22.968Z</time></trkpt><trkpt lat="39.742556224631294" lon="9.575954700806411"><ele>150.5</ele><time>2026-04-28T16:40:23.969Z</time></trkpt><trkpt lat="39.74262783953463" lon="9.575908083345446"><ele>150.66666666666669</ele><time>2026-04-28T16:40:24.969Z</time></trkpt><trkpt lat="39.74271196930767" lon="9.575880977772348"><ele>150.83333333333334</ele><time>2026-04-28T16:40:25.969Z</time></trkpt><trkpt lat="39.742806085172255" lon="9.575879940622093"><ele>151.0</ele><time>2026-04-28T16:40:26.969Z</time></trkpt><trkpt lat="39.742907688056796" lon="9.575908383020987"><ele>151.5</ele><time>2026-04-28T16:40:27.969Z</time></trkpt><trkpt lat="39.74301905189664" lon="9.575965169786556"><ele>152.0</ele><time>2026-04-28T16:40:28.969Z</time></trkpt><trkpt lat="39.74314436371693" lon="9.576006344376067"><ele>152.5</ele><time>2026-04-28T16:40:29.969Z</time></trkpt><trkpt lat="39.74327262016947" lon="9.576089530042266"><ele>153.0</ele><time>2026-04-28T16:40:30.969Z</time></trkpt><trkpt lat="39.74340940078751" lon="9.576157579621194"><ele>153.0</ele><time>2026-04-28T16:40:31.969Z</time></trkpt><trkpt lat="39.74356160601205" lon="9.576206451165218"><ele>153.0</ele><time>2026-04-28T16:40:32.969Z</time></trkpt><trkpt lat="39.743717350436036" lon="9.576243440171398"><ele>153.0</ele><time>2026-04-28T16:40:33.969Z</time></trkpt><trkpt lat="39.74387483337062" lon="9.576267738925848"><ele>153.0</ele><time>2026-04-28T16:40:34.969Z</time></trkpt><trkpt lat="39.74403818559774" lon="9.57628472179241"><ele>153.0</ele><time>2026-04-28T16:40:35.969Z</time></trkpt><trkpt lat="39.74420165074316" lon="9.576301309700298"><ele>153.0</ele><time>2026-04-28T16:40:36.969Z</time></trkpt><trkpt lat="39.744366794238516" lon="9.576318608570975"><ele>153.0</ele><time>2026-04-28T16:40:37.969Z</time></trkpt><trkpt lat="39.744530500574584" lon="9.576331316120132"><ele>153.0</ele><time>2026-04-28T16:40:38.969Z</time></trkpt><trkpt lat="39.74469599787186" lon="9.576334185379388"><ele>153.0</ele><time>2026-04-28T16:40:39.969Z</time></trkpt><trkpt lat="39.74485957289998" lon="9.576324646062432"><ele>153.0</ele><time>2026-04-28T16:40:40.969Z</time></trkpt><trkpt lat="39.74502637728744" lon="9.57629598396409"><ele>153.0</ele><time>2026-04-28T16:40:41.969Z</time></trkpt><trkpt lat="39.74519015049597" lon="9.576248745566303"><ele>153.0</ele><time>2026-04-28T16:40:42.969Z</time></trkpt><trkpt lat="39.74536036112892" lon="9.576189698801926"><ele>156.66666666666666</ele><time>2026-04-28T16:40:43.969Z</time></trkpt><trkpt lat="39.74552791335701" lon="9.576120104879516"><ele>160.33333333333331</ele><time>2026-04-28T16:40:44.969Z</time></trkpt><trkpt lat="39.74570080619602" lon="9.576045957767898"><ele>164.0</ele><time>2026-04-28T16:40:45.969Z</time></trkpt><trkpt lat="39.745872258143265" lon="9.575967373755951"><ele>164.0</ele><time>2026-04-28T16:40:46.969Z</time></trkpt><trkpt lat="39.746043680574836" lon="9.575892270133195"><ele>164.0</ele><time>2026-04-28T16:40:47.969Z</time></trkpt><trkpt lat="39.74621780464496" lon="9.575818954984019"><ele>164.0</ele><time>2026-04-28T16:40:48.969Z</time></trkpt><trkpt lat="39.74639200105158" lon="9.575747525047612"><ele>161.33333333333331</ele><time>2026-04-28T16:40:49.969Z</time></trkpt><trkpt lat="39.74656531412605" lon="9.575677230754733"><ele>158.66666666666666</ele><time>2026-04-28T16:40:50.969Z</time></trkpt><trkpt lat="39.74674273369064" lon="9.575607891065316"><ele>156.0</ele><time>2026-04-28T16:40:51.969Z</time></trkpt><trkpt lat="39.7469179675138" lon="9.57553040754015"><ele>155.66666666666666</ele><time>2026-04-28T16:40:52.969Z</time></trkpt><trkpt lat="39.74708939781077" lon="9.57545683063503"><ele>155.33333333333331</ele><time>2026-04-28T16:40:53.969Z</time></trkpt><trkpt lat="39.74725716748145" lon="9.575385406166918"><ele>155.0</ele><time>2026-04-28T16:40:54.969Z</time></trkpt><trkpt lat="39.74742704582369" lon="9.575324013051132"><ele>156.0</ele><time>2026-04-28T16:40:55.969Z</time></trkpt><trkpt lat="39.747601835928265" lon="9.575282463142285"><ele>157.0</ele><time>2026-04-28T16:40:56.969Z</time></trkpt><trkpt lat="39.747775508625786" lon="9.575259321715704"><ele>158.0</ele><time>2026-04-28T16:40:57.969Z</time></trkpt><trkpt lat="39.74794981568803" lon="9.575247205090058"><ele>158.66666666666666</ele><time>2026-04-28T16:40:58.969Z</time></trkpt><trkpt lat="39.74811518223692" lon="9.575178599726465"><ele>159.33333333333334</ele><time>2026-04-28T16:40:59.969Z</time></trkpt><trkpt lat="39.748288666856425" lon="9.575106599493239"><ele>160.0</ele><time>2026-04-28T16:41:00.969Z</time></trkpt><trkpt lat="39.74845590784982" lon="9.575044016450049"><ele>160.66666666666669</ele><time>2026-04-28T16:41:01.969Z</time></trkpt><trkpt lat="39.74863625699212" lon="9.574997939721298"><ele>161.33333333333334</ele><time>2026-04-28T16:41:02.969Z</time></trkpt><trkpt lat="39.74881238153334" lon="9.574974682544944"><ele>162.0</ele><time>2026-04-28T16:41:03.969Z</time></trkpt><trkpt lat="39.74899135960695" lon="9.574955791523884"><ele>162.0</ele><time>2026-04-28T16:41:04.969Z</time></trkpt><trkpt lat="39.74917421631743" lon="9.574931701004957"><ele>162.0</ele><time>2026-04-28T16:41:05.969Z</time></trkpt><trkpt lat="39.749358700400016" lon="9.574901462436276"><ele>162.0</ele><time>2026-04-28T16:41:06.969Z</time></trkpt><trkpt lat="39.74953695815526" lon="9.574866367568795"><ele>161.66666666666666</ele><time>2026-04-28T16:41:07.969Z</time></trkpt><trkpt lat="39.7497144345615" lon="9.574812445000354"><ele>161.33333333333331</ele><time>2026-04-28T16:41:08.969Z</time></trkpt><trkpt lat="39.749889549203516" lon="9.574740759184898"><ele>161.0</ele><time>2026-04-28T16:41:09.969Z</time></trkpt><trkpt lat="39.75006228850451" lon="9.574654638528504"><ele>160.33333333333331</ele><time>2026-04-28T16:41:10.969Z</time></trkpt><trkpt lat="39.75023497611452" lon="9.574557871815378"><ele>159.66666666666666</ele><time>2026-04-28T16:41:11.969Z</time></trkpt><trkpt lat="39.75041438060906" lon="9.574456473371457"><ele>159.0</ele><time>2026-04-28T16:41:12.969Z</time></trkpt><trkpt lat="39.750588583002575" lon="9.574359591766063"><ele>160.33333333333334</ele><time>2026-04-28T16:41:13.969Z</time></trkpt><trkpt lat="39.75075698420019" lon="9.57426373771127"><ele>161.66666666666669</ele><time>2026-04-28T16:41:14.969Z</time></trkpt><trkpt lat="39.750937538105994" lon="9.574159623388132"><ele>163.0</ele><time>2026-04-28T16:41:15.969Z</time></trkpt><trkpt lat="39.75111130033881" lon="9.57405995919801"><ele>163.33333333333334</ele><time>2026-04-28T16:41:16.97Z</time></trkpt><trkpt lat="39.75128880393346" lon="9.57395849726586"><ele>163.66666666666666</ele><time>2026-04-28T16:41:17.969Z</time></trkpt><trkpt lat="39.75146670910535" lon="9.573857954387815"><ele>164.0</ele><time>2026-04-28T16:41:18.969Z</time></trkpt><trkpt lat="39.751646182462515" lon="9.57375654986099"><ele>164.0</ele><time>2026-04-28T16:41:19.969Z</time></trkpt><trkpt lat="39.75182743859318" lon="9.573654572866444"><ele>164.0</ele><time>2026-04-28T16:41:20.969Z</time></trkpt><trkpt lat="39.7520060686663" lon="9.573549110585573"><ele>164.0</ele><time>2026-04-28T16:41:21.969Z</time></trkpt><trkpt lat="39.75218414963802" lon="9.573444868116374"><ele>164.0</ele><time>2026-04-28T16:41:22.969Z</time></trkpt><trkpt lat="39.752365466110746" lon="9.573340229998923"><ele>164.0</ele><time>2026-04-28T16:41:23.969Z</time></trkpt><trkpt lat="39.75254652400401" lon="9.573240847579347"><ele>164.0</ele><time>2026-04-28T16:41:24.969Z</time></trkpt><trkpt lat="39.752724848185416" lon="9.573142383796482"><ele>163.66666666666666</ele><time>2026-04-28T16:41:25.969Z</time></trkpt><trkpt lat="39.752904659724514" lon="9.573041193692326"><ele>163.33333333333334</ele><time>2026-04-28T16:41:26.969Z</time></trkpt><trkpt lat="39.7530862936577" lon="9.57293769800868"><ele>163.0</ele><time>2026-04-28T16:41:27.969Z</time></trkpt><trkpt lat="39.75326711483025" lon="9.572835437750593"><ele>164.33333333333334</ele><time>2026-04-28T16:41:28.969Z</time></trkpt><trkpt lat="39.75344386643067" lon="9.572733491039921"><ele>165.66666666666666</ele><time>2026-04-28T16:41:29.969Z</time></trkpt><trkpt lat="39.75362300868632" lon="9.572651186098144"><ele>167.0</ele><time>2026-04-28T16:41:30.969Z</time></trkpt><trkpt lat="39.753793779863116" lon="9.572553232638993"><ele>167.0</ele><time>2026-04-28T16:41:31.969Z</time></trkpt><trkpt lat="39.75395186979502" lon="9.572446776379335"><ele>167.0</ele><time>2026-04-28T16:41:32.969Z</time></trkpt><trkpt lat="39.75409747111828" lon="9.572304271948859"><ele>167.0</ele><time>2026-04-28T16:41:33.969Z</time></trkpt><trkpt lat="39.75425170219326" lon="9.5721846622362"><ele>166.33333333333331</ele><time>2026-04-28T16:41:34.969Z</time></trkpt><trkpt lat="39.75441046624802" lon="9.57206966723672"><ele>165.66666666666666</ele><time>2026-04-28T16:41:35.969Z</time></trkpt><trkpt lat="39.75457619143581" lon="9.571956952503832"><ele>165.0</ele><time>2026-04-28T16:41:36.969Z</time></trkpt><trkpt lat="39.75474748113529" lon="9.571847792114582"><ele>166.33333333333334</ele><time>2026-04-28T16:41:37.969Z</time></trkpt><trkpt lat="39.75492040981692" lon="9.571737934276817"><ele>167.66666666666669</ele><time>2026-04-28T16:41:38.969Z</time></trkpt><trkpt lat="39.755091965736085" lon="9.571626848540253"><ele>169.0</ele><time>2026-04-28T16:41:39.969Z</time></trkpt><trkpt lat="39.75526313310599" lon="9.571517333243282"><ele>169.0</ele><time>2026-04-28T16:41:40.969Z</time></trkpt><trkpt lat="39.75543858553613" lon="9.57141297165078"><ele>169.0</ele><time>2026-04-28T16:41:41.969Z</time></trkpt><trkpt lat="39.75561532353616" lon="9.571312677243343"><ele>169.0</ele><time>2026-04-28T16:41:42.969Z</time></trkpt><trkpt lat="39.75579437458566" lon="9.571214181902217"><ele>169.66666666666669</ele><time>2026-04-28T16:41:43.969Z</time></trkpt><trkpt lat="39.75597243070663" lon="9.571120067196727"><ele>170.33333333333334</ele><time>2026-04-28T16:41:44.969Z</time></trkpt><trkpt lat="39.75614737625522" lon="9.571027689004309"><ele>171.0</ele><time>2026-04-28T16:41:45.969Z</time></trkpt><trkpt lat="39.75632031102518" lon="9.570924477380359"><ele>171.0</ele><time>2026-04-28T16:41:46.969Z</time></trkpt><trkpt lat="39.756491332570455" lon="9.570808501188338"><ele>171.0</ele><time>2026-04-28T16:41:47.969Z</time></trkpt><trkpt lat="39.756658089902054" lon="9.570686378579008"><ele>171.0</ele><time>2026-04-28T16:41:48.97Z</time></trkpt><trkpt lat="39.75682175394488" lon="9.5705572531227"><ele>170.0</ele><time>2026-04-28T16:41:49.97Z</time></trkpt><trkpt lat="39.75698081888124" lon="9.570427582288541"><ele>169.0</ele><time>2026-04-28T16:41:50.97Z</time></trkpt><trkpt lat="39.75714667337364" lon="9.570305139057513"><ele>168.0</ele><time>2026-04-28T16:41:51.97Z</time></trkpt><trkpt lat="39.75732042256603" lon="9.570200295989626"><ele>169.66666666666666</ele><time>2026-04-28T16:41:52.97Z</time></trkpt><trkpt lat="39.75750202307872" lon="9.570101430544659"><ele>171.33333333333331</ele><time>2026-04-28T16:41:53.97Z</time></trkpt><trkpt lat="39.75768575066176" lon="9.570012123364357"><ele>173.0</ele><time>2026-04-28T16:41:54.97Z</time></trkpt><trkpt lat="39.757868096351615" lon="9.569932185178061"><ele>173.0</ele><time>2026-04-28T16:41:55.97Z</time></trkpt><trkpt lat="39.75803904596991" lon="9.569851210197278"><ele>173.0</ele><time>2026-04-28T16:41:56.97Z</time></trkpt><trkpt lat="39.75819822356676" lon="9.569747355821795"><ele>173.0</ele><time>2026-04-28T16:41:57.97Z</time></trkpt><trkpt lat="39.758361729337665" lon="9.569623789672852"><ele>174.0</ele><time>2026-04-28T16:41:58.97Z</time></trkpt><trkpt lat="39.7585308199869" lon="9.56949870431714"><ele>175.0</ele><time>2026-04-28T16:41:59.97Z</time></trkpt><trkpt lat="39.75869994739041" lon="9.569373741479943"><ele>176.0</ele><time>2026-04-28T16:42:00.97Z</time></trkpt><trkpt lat="39.758870833686345" lon="9.569251401395196"><ele>176.0</ele><time>2026-04-28T16:42:01.97Z</time></trkpt><trkpt lat="39.75904422724826" lon="9.569134710278684"><ele>176.0</ele><time>2026-04-28T16:42:02.97Z</time></trkpt><trkpt lat="39.75922810527038" lon="9.569021996980373"><ele>176.0</ele><time>2026-04-28T16:42:03.97Z</time></trkpt><trkpt lat="39.75941446971075" lon="9.568948302384737"><ele>175.66666666666666</ele><time>2026-04-28T16:42:04.97Z</time></trkpt><trkpt lat="39.759605691383456" lon="9.568882650719205"><ele>175.33333333333334</ele><time>2026-04-28T16:42:05.97Z</time></trkpt><trkpt lat="39.75979889150187" lon="9.568829957530648"><ele>175.0</ele><time>2026-04-28T16:42:06.97Z</time></trkpt><trkpt lat="39.75998027313516" lon="9.568779807123507"><ele>175.0</ele><time>2026-04-28T16:42:07.97Z</time></trkpt><trkpt lat="39.7601505482943" lon="9.568729769050185"><ele>175.0</ele><time>2026-04-28T16:42:08.97Z</time></trkpt><trkpt lat="39.76030355708765" lon="9.568671315687846"><ele>175.0</ele><time>2026-04-28T16:42:09.97Z</time></trkpt><trkpt lat="39.76044489247603" lon="9.56858167390521"><ele>176.25</ele><time>2026-04-28T16:42:10.97Z</time></trkpt><trkpt lat="39.760565655982326" lon="9.568476135004394"><ele>177.5</ele><time>2026-04-28T16:42:11.97Z</time></trkpt><trkpt lat="39.76067416378221" lon="9.568350374189949"><ele>178.75</ele><time>2026-04-28T16:42:12.97Z</time></trkpt><trkpt lat="39.76077854446432" lon="9.568202832920187"><ele>180.0</ele><time>2026-04-28T16:42:13.97Z</time></trkpt><trkpt lat="39.76087471515405" lon="9.568034967574148"><ele>179.66666666666666</ele><time>2026-04-28T16:42:14.97Z</time></trkpt><trkpt lat="39.760975429513806" lon="9.567858039454713"><ele>179.33333333333331</ele><time>2026-04-28T16:42:15.97Z</time></trkpt><trkpt lat="39.76107957076382" lon="9.56768436871994"><ele>179.0</ele><time>2026-04-28T16:42:16.97Z</time></trkpt><trkpt lat="39.76118424838369" lon="9.567523246161258"><ele>179.0</ele><time>2026-04-28T16:42:17.97Z</time></trkpt><trkpt lat="39.76130433226647" lon="9.567384112782738"><ele>179.0</ele><time>2026-04-28T16:42:18.97Z</time></trkpt><trkpt lat="39.761440399362286" lon="9.56727287221143"><ele>179.0</ele><time>2026-04-28T16:42:19.97Z</time></trkpt><trkpt lat="39.76158967384993" lon="9.567164495615069"><ele>179.0</ele><time>2026-04-28T16:42:20.97Z</time></trkpt><trkpt lat="39.76175017668361" lon="9.567053307840684"><ele>179.0</ele><time>2026-04-28T16:42:21.97Z</time></trkpt><trkpt lat="39.76191684444615" lon="9.5669376142596"><ele>179.0</ele><time>2026-04-28T16:42:22.97Z</time></trkpt><trkpt lat="39.76208734387128" lon="9.566826569983363"><ele>179.66666666666666</ele><time>2026-04-28T16:42:23.97Z</time></trkpt><trkpt lat="39.76226192465417" lon="9.56671343122144"><ele>180.33333333333334</ele><time>2026-04-28T16:42:24.97Z</time></trkpt><trkpt lat="39.762437283503495" lon="9.566602967070201"><ele>181.0</ele><time>2026-04-28T16:42:25.97Z</time></trkpt><trkpt lat="39.76261116506713" lon="9.566491507074312"><ele>181.33333333333334</ele><time>2026-04-28T16:42:26.97Z</time></trkpt><trkpt lat="39.76278333530201" lon="9.566379458541142"><ele>181.66666666666666</ele><time>2026-04-28T16:42:27.97Z</time></trkpt><trkpt lat="39.762953809451034" lon="9.566267885356913"><ele>182.0</ele><time>2026-04-28T16:42:28.97Z</time></trkpt><trkpt lat="39.76312115548225" lon="9.566148009211975"><ele>182.66666666666666</ele><time>2026-04-28T16:42:29.97Z</time></trkpt><trkpt lat="39.763282292898914" lon="9.566019947168217"><ele>183.33333333333334</ele><time>2026-04-28T16:42:30.97Z</time></trkpt><trkpt lat="39.763437536336006" lon="9.565876172336921"><ele>184.0</ele><time>2026-04-28T16:42:31.97Z</time></trkpt><trkpt lat="39.76358859214747" lon="9.565716015943584"><ele>184.33333333333334</ele><time>2026-04-28T16:42:32.97Z</time></trkpt><trkpt lat="39.76372634628798" lon="9.565539178436005"><ele>184.66666666666666</ele><time>2026-04-28T16:42:33.97Z</time></trkpt><trkpt lat="39.76385629356092" lon="9.56535414135282"><ele>185.0</ele><time>2026-04-28T16:42:34.97Z</time></trkpt><trkpt lat="39.76397998251716" lon="9.56516645813726"><ele>185.66666666666666</ele><time>2026-04-28T16:42:35.97Z</time></trkpt><trkpt lat="39.76410032047468" lon="9.564975566621237"><ele>186.33333333333334</ele><time>2026-04-28T16:42:36.97Z</time></trkpt><trkpt lat="39.764217636184604" lon="9.564808272169993"><ele>187.0</ele><time>2026-04-28T16:42:37.97Z</time></trkpt><trkpt lat="39.764332466583674" lon="9.56466680388798"><ele>186.0</ele><time>2026-04-28T16:42:38.97Z</time></trkpt><trkpt lat="39.76445297432148" lon="9.564550602540372"><ele>185.0</ele><time>2026-04-28T16:42:39.97Z</time></trkpt><trkpt lat="39.764585515389975" lon="9.56445182930226"><ele>184.0</ele><time>2026-04-28T16:42:40.971Z</time></trkpt><trkpt lat="39.76473543121533" lon="9.564364883719191"><ele>185.33333333333334</ele><time>2026-04-28T16:42:41.971Z</time></trkpt><trkpt lat="39.76489438365237" lon="9.564280655280246"><ele>186.66666666666666</ele><time>2026-04-28T16:42:42.971Z</time></trkpt><trkpt lat="39.76506142031933" lon="9.564193987241634"><ele>188.0</ele><time>2026-04-28T16:42:43.971Z</time></trkpt><trkpt lat="39.76523248426473" lon="9.564102281390792"><ele>188.0</ele><time>2026-04-28T16:42:44.971Z</time></trkpt><trkpt lat="39.76540999903784" lon="9.564011315443965"><ele>188.0</ele><time>2026-04-28T16:42:45.971Z</time></trkpt><trkpt lat="39.76559420723191" lon="9.563919038996188"><ele>188.0</ele><time>2026-04-28T16:42:46.971Z</time></trkpt><trkpt lat="39.7657774404842" lon="9.56382154912662"><ele>188.0</ele><time>2026-04-28T16:42:47.971Z</time></trkpt><trkpt lat="39.76595823689309" lon="9.563721797349109"><ele>188.0</ele><time>2026-04-28T16:42:48.971Z</time></trkpt><trkpt lat="39.76613117984274" lon="9.563610808691767"><ele>188.0</ele><time>2026-04-28T16:42:49.971Z</time></trkpt><trkpt lat="39.7662948915105" lon="9.563486333827669"><ele>189.33333333333331</ele><time>2026-04-28T16:42:50.971Z</time></trkpt><trkpt lat="39.76645458006256" lon="9.563366736844454"><ele>190.66666666666666</ele><time>2026-04-28T16:42:51.971Z</time></trkpt><trkpt lat="39.76661486305443" lon="9.563242586807098"><ele>192.0</ele><time>2026-04-28T16:42:52.971Z</time></trkpt><trkpt lat="39.76677652652541" lon="9.56312037591118"><ele>191.33333333333334</ele><time>2026-04-28T16:42:53.971Z</time></trkpt><trkpt lat="39.766938942635655" lon="9.562995046869144"><ele>190.66666666666669</ele><time>2026-04-28T16:42:54.971Z</time></trkpt><trkpt lat="39.7671018158094" lon="9.562867501006988"><ele>190.0</ele><time>2026-04-28T16:42:55.971Z</time></trkpt><trkpt lat="39.76726677168375" lon="9.562739278329138"><ele>191.0</ele><time>2026-04-28T16:42:56.971Z</time></trkpt><trkpt lat="39.76742996040576" lon="9.562615106806913"><ele>192.0</ele><time>2026-04-28T16:42:57.971Z</time></trkpt><trkpt lat="39.7675957778823" lon="9.562487109134894"><ele>193.0</ele><time>2026-04-28T16:42:58.971Z</time></trkpt><trkpt lat="39.76776223134845" lon="9.5623583294427"><ele>193.0</ele><time>2026-04-28T16:42:59.971Z</time></trkpt><trkpt lat="39.76792941708291" lon="9.562230058799777"><ele>193.0</ele><time>2026-04-28T16:43:00.971Z</time></trkpt><trkpt lat="39.76809718551544" lon="9.562103563153853"><ele>193.0</ele><time>2026-04-28T16:43:01.971Z</time></trkpt><trkpt lat="39.76826820307066" lon="9.561979515579806"><ele>194.33333333333331</ele><time>2026-04-28T16:43:02.971Z</time></trkpt><trkpt lat="39.76844164886745" lon="9.561861075251642"><ele>195.66666666666669</ele><time>2026-04-28T16:43:03.971Z</time></trkpt><trkpt lat="39.768615910217164" lon="9.561748479050395"><ele>197.0</ele><time>2026-04-28T16:43:04.971Z</time></trkpt><trkpt lat="39.76879224803716" lon="9.561642648374379"><ele>197.0</ele><time>2026-04-28T16:43:05.971Z</time></trkpt><trkpt lat="39.768968424776496" lon="9.561543133263749"><ele>197.0</ele><time>2026-04-28T16:43:06.971Z</time></trkpt><trkpt lat="39.7691452099262" lon="9.561441968854176"><ele>197.0</ele><time>2026-04-28T16:43:07.971Z</time></trkpt><trkpt lat="39.769321099592986" lon="9.561338341241438"><ele>197.0</ele><time>2026-04-28T16:43:08.971Z</time></trkpt><trkpt lat="39.769499852222125" lon="9.561227997738282"><ele>197.0</ele><time>2026-04-28T16:43:09.971Z</time></trkpt><trkpt lat="39.769675242863336" lon="9.561121003550863"><ele>197.0</ele><time>2026-04-28T16:43:10.971Z</time></trkpt><trkpt lat="39.769850178912236" lon="9.561016109674808"><ele>198.33333333333334</ele><time>2026-04-28T16:43:11.971Z</time></trkpt><trkpt lat="39.7700239185049" lon="9.5609151500035"><ele>199.66666666666669</ele><time>2026-04-28T16:43:12.971Z</time></trkpt><trkpt lat="39.77019473292869" lon="9.560812807936735"><ele>201.0</ele><time>2026-04-28T16:43:13.971Z</time></trkpt><trkpt lat="39.77036936997743" lon="9.560711049759885"><ele>201.0</ele><time>2026-04-28T16:43:14.971Z</time></trkpt><trkpt lat="39.770544941253476" lon="9.560608465810532"><ele>201.0</ele><time>2026-04-28T16:43:15.971Z</time></trkpt><trkpt lat="39.770720071465405" lon="9.560508515645168"><ele>201.0</ele><time>2026-04-28T16:43:16.971Z</time></trkpt><trkpt lat="39.77089555500812" lon="9.560403950034406"><ele>202.66666666666669</ele><time>2026-04-28T16:43:17.971Z</time></trkpt><trkpt lat="39.771067293188985" lon="9.560305015734466"><ele>204.33333333333334</ele><time>2026-04-28T16:43:18.971Z</time></trkpt><trkpt lat="39.771243580429804" lon="9.560202567277216"><ele>206.0</ele><time>2026-04-28T16:43:19.971Z</time></trkpt><trkpt lat="39.77142062636892" lon="9.560097272638597"><ele>206.0</ele><time>2026-04-28T16:43:20.971Z</time></trkpt><trkpt lat="39.77159355181205" lon="9.559995518633896"><ele>206.0</ele><time>2026-04-28T16:43:21.971Z</time></trkpt><trkpt lat="39.77177002379654" lon="9.559885250179613"><ele>206.0</ele><time>2026-04-28T16:43:22.971Z</time></trkpt><trkpt lat="39.77194674468017" lon="9.559780694357107"><ele>206.0</ele><time>2026-04-28T16:43:23.971Z</time></trkpt><trkpt lat="39.7721266188457" lon="9.559675863690984"><ele>206.0</ele><time>2026-04-28T16:43:24.971Z</time></trkpt><trkpt lat="39.77230440030406" lon="9.559572232881129"><ele>206.0</ele><time>2026-04-28T16:43:25.971Z</time></trkpt><trkpt lat="39.77248434654034" lon="9.559466863254675"><ele>207.0</ele><time>2026-04-28T16:43:26.971Z</time></trkpt><trkpt lat="39.77266404410731" lon="9.559361905656901"><ele>208.0</ele><time>2026-04-28T16:43:27.971Z</time></trkpt><trkpt lat="39.772842107769655" lon="9.559260303436586"><ele>209.0</ele><time>2026-04-28T16:43:28.971Z</time></trkpt><trkpt lat="39.773011248139085" lon="9.559165838209438"><ele>209.0</ele><time>2026-04-28T16:43:29.971Z</time></trkpt><trkpt lat="39.77317584979115" lon="9.55909072367345"><ele>209.0</ele><time>2026-04-28T16:43:30.971Z</time></trkpt><trkpt lat="39.773342675103756" lon="9.559047152530766"><ele>209.0</ele><time>2026-04-28T16:43:31.971Z</time></trkpt><trkpt lat="39.77351963373646" lon="9.559009823046587"><ele>209.33333333333334</ele><time>2026-04-28T16:43:32.971Z</time></trkpt><trkpt lat="39.773702058312914" lon="9.558989267449581"><ele>209.66666666666669</ele><time>2026-04-28T16:43:33.971Z</time></trkpt><trkpt lat="39.773886042605405" lon="9.558978806150874"><ele>210.0</ele><time>2026-04-28T16:43:34.971Z</time></trkpt><trkpt lat="39.774072766444725" lon="9.558963848650958"><ele>210.0</ele><time>2026-04-28T16:43:35.971Z</time></trkpt><trkpt lat="39.774258851015645" lon="9.55894644522617"><ele>210.0</ele><time>2026-04-28T16:43:36.971Z</time></trkpt><trkpt lat="39.7744476355798" lon="9.558930211114529"><ele>210.0</ele><time>2026-04-28T16:43:37.971Z</time></trkpt><trkpt lat="39.77464077761969" lon="9.558907199568688"><ele>210.66666666666669</ele><time>2026-04-28T16:43:38.971Z</time></trkpt><trkpt lat="39.77482752355957" lon="9.558888760208426"><ele>211.33333333333334</ele><time>2026-04-28T16:43:39.971Z</time></trkpt><trkpt lat="39.775000759618074" lon="9.55886431543358"><ele>212.0</ele><time>2026-04-28T16:43:40.971Z</time></trkpt><trkpt lat="39.7751561448739" lon="9.558840026469317"><ele>213.25</ele><time>2026-04-28T16:43:41.971Z</time></trkpt><trkpt lat="39.77529692608065" lon="9.558802336616415"><ele>214.5</ele><time>2026-04-28T16:43:42.971Z</time></trkpt><trkpt lat="39.77542860277424" lon="9.558743022235126"><ele>215.75</ele><time>2026-04-28T16:43:43.971Z</time></trkpt><trkpt lat="39.77555173716795" lon="9.55865030543568"><ele>217.0</ele><time>2026-04-28T16:43:44.971Z</time></trkpt><trkpt lat="39.77567073246734" lon="9.55853922165965"><ele>218.33333333333331</ele><time>2026-04-28T16:43:45.971Z</time></trkpt><trkpt lat="39.775788150412495" lon="9.558414531182592"><ele>219.66666666666669</ele><time>2026-04-28T16:43:46.971Z</time></trkpt><trkpt lat="39.77589601149285" lon="9.558261408105617"><ele>221.0</ele><time>2026-04-28T16:43:47.971Z</time></trkpt><trkpt lat="39.775989156996" lon="9.558088284007345"><ele>224.0</ele><time>2026-04-28T16:43:48.971Z</time></trkpt><trkpt lat="39.776079597216224" lon="9.557918882190673"><ele>227.0</ele><time>2026-04-28T16:43:49.972Z</time></trkpt><trkpt lat="39.77618142463089" lon="9.557767937426767"><ele>230.0</ele><time>2026-04-28T16:43:50.972Z</time></trkpt><trkpt lat="39.7762948940239" lon="9.557645089889803"><ele>230.0</ele><time>2026-04-28T16:43:51.972Z</time></trkpt><trkpt lat="39.7764208280238" lon="9.557543470493558"><ele>230.0</ele><time>2026-04-28T16:43:52.972Z</time></trkpt><trkpt lat="39.77655922019873" lon="9.557462935658691"><ele>230.0</ele><time>2026-04-28T16:43:53.972Z</time></trkpt><trkpt lat="39.7767081812184" lon="9.557403066383857"><ele>233.0</ele><time>2026-04-28T16:43:54.972Z</time></trkpt><trkpt lat="39.77686545180787" lon="9.557353074229049"><ele>236.0</ele><time>2026-04-28T16:43:55.972Z</time></trkpt><trkpt lat="39.77703274240975" lon="9.55730867728256"><ele>239.0</ele><time>2026-04-28T16:43:56.972Z</time></trkpt><trkpt lat="39.777202790890776" lon="9.557261457438267"><ele>239.0</ele><time>2026-04-28T16:43:57.972Z</time></trkpt><trkpt lat="39.777363712898946" lon="9.557217403745307"><ele>239.0</ele><time>2026-04-28T16:43:58.972Z</time></trkpt><trkpt lat="39.77751912483624" lon="9.557195299752166"><ele>239.0</ele><time>2026-04-28T16:43:59.972Z</time></trkpt><trkpt lat="39.77765520484495" lon="9.557141683842513"><ele>240.25</ele><time>2026-04-28T16:44:00.972Z</time></trkpt><trkpt lat="39.777780660105975" lon="9.557043540070778"><ele>241.5</ele><time>2026-04-28T16:44:01.972Z</time></trkpt><trkpt lat="39.77788192258043" lon="9.556917680903357"><ele>242.75</ele><time>2026-04-28T16:44:02.972Z</time></trkpt><trkpt lat="39.77799035244875" lon="9.556827250633626"><ele>244.0</ele><time>2026-04-28T16:44:03.972Z</time></trkpt><trkpt lat="39.778108942017006" lon="9.556747697529808"><ele>244.0</ele><time>2026-04-28T16:44:04.972Z</time></trkpt><trkpt lat="39.77823867405642" lon="9.556685427552592"><ele>244.0</ele><time>2026-04-28T16:44:05.972Z</time></trkpt><trkpt lat="39.77837710718757" lon="9.556631195102087"><ele>244.0</ele><time>2026-04-28T16:44:06.972Z</time></trkpt><trkpt lat="39.77852427002813" lon="9.556599023826859"><ele>244.0</ele><time>2026-04-28T16:44:07.972Z</time></trkpt><trkpt lat="39.77867323560285" lon="9.556533854319099"><ele>244.0</ele><time>2026-04-28T16:44:08.972Z</time></trkpt><trkpt lat="39.77880671932355" lon="9.556434500845937"><ele>244.0</ele><time>2026-04-28T16:44:09.972Z</time></trkpt><trkpt lat="39.7789432917999" lon="9.556365993835948"><ele>244.0</ele><time>2026-04-28T16:44:10.972Z</time></trkpt><trkpt lat="39.77907141461018" lon="9.55628472010766"><ele>244.0</ele><time>2026-04-28T16:44:11.972Z</time></trkpt><trkpt lat="39.77919650739667" lon="9.55619920355786"><ele>244.0</ele><time>2026-04-28T16:44:12.972Z</time></trkpt><trkpt lat="39.779290854815905" lon="9.556059924025686"><ele>244.0</ele><time>2026-04-28T16:44:13.972Z</time></trkpt><trkpt lat="39.77939408232208" lon="9.55593036278136"><ele>244.0</ele><time>2026-04-28T16:44:14.972Z</time></trkpt><trkpt lat="39.77951111967974" lon="9.555795232657491"><ele>244.0</ele><time>2026-04-28T16:44:15.972Z</time></trkpt><trkpt lat="39.779632852641946" lon="9.555676706293752"><ele>246.0</ele><time>2026-04-28T16:44:16.972Z</time></trkpt><trkpt lat="39.77976222333364" lon="9.55555430583666"><ele>248.0</ele><time>2026-04-28T16:44:17.972Z</time></trkpt><trkpt lat="39.77989779548967" lon="9.555427966079998"><ele>250.0</ele><time>2026-04-28T16:44:18.972Z</time></trkpt><trkpt lat="39.78003868080455" lon="9.555300518195"><ele>250.0</ele><time>2026-04-28T16:44:19.972Z</time></trkpt><trkpt lat="39.78017702233967" lon="9.555174424716954"><ele>250.0</ele><time>2026-04-28T16:44:20.972Z</time></trkpt><trkpt lat="39.7803221743061" lon="9.555047853364105"><ele>250.0</ele><time>2026-04-28T16:44:21.972Z</time></trkpt><trkpt lat="39.780470066879" lon="9.554930407226149"><ele>256.3333333333333</ele><time>2026-04-28T16:44:22.972Z</time></trkpt><trkpt lat="39.78062179016503" lon="9.55480166120749"><ele>262.6666666666667</ele><time>2026-04-28T16:44:23.972Z</time></trkpt><trkpt lat="39.78077998990615" lon="9.5546848195765"><ele>269.0</ele><time>2026-04-28T16:44:24.972Z</time></trkpt><trkpt lat="39.78093486897734" lon="9.554558969681777"><ele>270.33333333333337</ele><time>2026-04-28T16:44:25.972Z</time></trkpt><trkpt lat="39.78109358910039" lon="9.554426677695078"><ele>271.6666666666667</ele><time>2026-04-28T16:44:26.972Z</time></trkpt><trkpt lat="39.78125359311528" lon="9.554295609934195"><ele>273.0</ele><time>2026-04-28T16:44:27.972Z</time></trkpt><trkpt lat="39.78141376525565" lon="9.55416511459683"><ele>273.0</ele><time>2026-04-28T16:44:28.972Z</time></trkpt><trkpt lat="39.78157745005564" lon="9.554035097172948"><ele>273.0</ele><time>2026-04-28T16:44:29.972Z</time></trkpt><trkpt lat="39.781743913048835" lon="9.553894930428266"><ele>273.0</ele><time>2026-04-28T16:44:30.972Z</time></trkpt><trkpt lat="39.781897240224296" lon="9.553765539524628"><ele>275.25</ele><time>2026-04-28T16:44:31.972Z</time></trkpt><trkpt lat="39.782035582935464" lon="9.553661422953478"><ele>277.5</ele><time>2026-04-28T16:44:32.972Z</time></trkpt><trkpt lat="39.78215772408694" lon="9.553557577287915"><ele>279.75</ele><time>2026-04-28T16:44:33.972Z</time></trkpt><trkpt lat="39.782265517580825" lon="9.553445886758473"><ele>282.0</ele><time>2026-04-28T16:44:34.972Z</time></trkpt><trkpt lat="39.782361243742976" lon="9.553319216245471"><ele>282.0</ele><time>2026-04-28T16:44:35.972Z</time></trkpt><trkpt lat="39.78241477287369" lon="9.553213672209969"><ele>282.0</ele><time>2026-04-28T16:44:36.972Z</time></trkpt><trkpt lat="39.782485809695835" lon="9.553125574222733"><ele>282.0</ele><time>2026-04-28T16:44:37.972Z</time></trkpt><trkpt lat="39.78254516746163" lon="9.553050754470453"><ele>282.0</ele><time>2026-04-28T16:44:38.972Z</time></trkpt><trkpt lat="39.78259704448199" lon="9.553001796164992"><ele>282.0</ele><time>2026-04-28T16:44:39.972Z</time></trkpt><trkpt lat="39.78267138996008" lon="9.552944276808132"><ele>282.0</ele><time>2026-04-28T16:44:41.972Z</time></trkpt><trkpt lat="39.78263185765649" lon="9.552782573003833"><ele>280.0</ele><time>2026-04-28T16:44:42.973Z</time></trkpt><trkpt lat="39.78260972934546" lon="9.552697044666724"><ele>278.0</ele><time>2026-04-28T16:44:43.973Z</time></trkpt><trkpt lat="39.782573792668494" lon="9.552606399208136"><ele>276.0</ele><time>2026-04-28T16:44:44.973Z</time></trkpt><trkpt lat="39.78252437633389" lon="9.552494115759378"><ele>274.0</ele><time>2026-04-28T16:44:45.973Z</time></trkpt><trkpt lat="39.78247714380717" lon="9.552359624625424"><ele>272.0</ele><time>2026-04-28T16:44:46.973Z</time></trkpt><trkpt lat="39.78243376071977" lon="9.55221653778099"><ele>272.0</ele><time>2026-04-28T16:44:47.973Z</time></trkpt><trkpt lat="39.7824022006951" lon="9.552061125996973"><ele>272.0</ele><time>2026-04-28T16:44:48.973Z</time></trkpt><trkpt lat="39.78238315701947" lon="9.551889187342073"><ele>272.0</ele><time>2026-04-28T16:44:49.973Z</time></trkpt><trkpt lat="39.7823700734983" lon="9.551719177805758"><ele>272.0</ele><time>2026-04-28T16:44:50.973Z</time></trkpt><trkpt lat="39.7823581489034" lon="9.551547278832828"><ele>271.75</ele><time>2026-04-28T16:44:51.973Z</time></trkpt><trkpt lat="39.78236265079036" lon="9.55137547767533"><ele>271.5</ele><time>2026-04-28T16:44:52.973Z</time></trkpt><trkpt lat="39.78234902735569" lon="9.55119000864639"><ele>271.25</ele><time>2026-04-28T16:44:53.973Z</time></trkpt><trkpt lat="39.78233712017182" lon="9.551002044433075"><ele>271.0</ele><time>2026-04-28T16:44:54.973Z</time></trkpt><trkpt lat="39.782321210527265" lon="9.55080925900802"><ele>270.75</ele><time>2026-04-28T16:44:55.973Z</time></trkpt><trkpt lat="39.782309461582095" lon="9.550613176085125"><ele>270.5</ele><time>2026-04-28T16:44:56.973Z</time></trkpt><trkpt lat="39.782298255436885" lon="9.55042555663831"><ele>270.25</ele><time>2026-04-28T16:44:57.973Z</time></trkpt><trkpt lat="39.78228769238648" lon="9.550238775998613"><ele>270.0</ele><time>2026-04-28T16:44:58.973Z</time></trkpt><trkpt lat="39.78228320672818" lon="9.550058795855428"><ele>270.5</ele><time>2026-04-28T16:44:59.973Z</time></trkpt><trkpt lat="39.78226909335967" lon="9.549882087956822"><ele>271.0</ele><time>2026-04-28T16:45:00.973Z</time></trkpt><trkpt lat="39.78225018504028" lon="9.549703156794559"><ele>271.5</ele><time>2026-04-28T16:45:01.973Z</time></trkpt><trkpt lat="39.782235081512454" lon="9.549528387213574"><ele>272.0</ele><time>2026-04-28T16:45:02.973Z</time></trkpt><trkpt lat="39.78222282749112" lon="9.54936553635217"><ele>272.25</ele><time>2026-04-28T16:45:03.973Z</time></trkpt><trkpt lat="39.78222863354074" lon="9.549212145163413"><ele>272.5</ele><time>2026-04-28T16:45:04.973Z</time></trkpt><trkpt lat="39.78223797740176" lon="9.549055611925256"><ele>272.75</ele><time>2026-04-28T16:45:05.973Z</time></trkpt><trkpt lat="39.78226820306319" lon="9.548898927559152"><ele>273.0</ele><time>2026-04-28T16:45:06.973Z</time></trkpt><trkpt lat="39.78231680373434" lon="9.548744267521014"><ele>276.75</ele><time>2026-04-28T16:45:07.973Z</time></trkpt><trkpt lat="39.78237431329853" lon="9.548582776908443"><ele>280.5</ele><time>2026-04-28T16:45:08.973Z</time></trkpt><trkpt lat="39.78243926069679" lon="9.54841540715179"><ele>284.25</ele><time>2026-04-28T16:45:09.973Z</time></trkpt><trkpt lat="39.78250176141947" lon="9.548242834578897"><ele>288.0</ele><time>2026-04-28T16:45:10.973Z</time></trkpt><trkpt lat="39.782566616856805" lon="9.548065496145835"><ele>288.0</ele><time>2026-04-28T16:45:11.973Z</time></trkpt><trkpt lat="39.782634179460246" lon="9.547883000554005"><ele>288.0</ele><time>2026-04-28T16:45:12.973Z</time></trkpt><trkpt lat="39.782700899905706" lon="9.547698969281548"><ele>288.0</ele><time>2026-04-28T16:45:13.973Z</time></trkpt><trkpt lat="39.78276811458017" lon="9.547512729422763"><ele>289.0</ele><time>2026-04-28T16:45:14.973Z</time></trkpt><trkpt lat="39.782839448946426" lon="9.547325501973248"><ele>290.0</ele><time>2026-04-28T16:45:15.973Z</time></trkpt><trkpt lat="39.78291378458697" lon="9.547134835306565"><ele>291.0</ele><time>2026-04-28T16:45:16.973Z</time></trkpt><trkpt lat="39.78298318372575" lon="9.546945253890058"><ele>291.0</ele><time>2026-04-28T16:45:17.973Z</time></trkpt><trkpt lat="39.783051116243705" lon="9.546763679089704"><ele>291.0</ele><time>2026-04-28T16:45:18.973Z</time></trkpt><trkpt lat="39.78311707171248" lon="9.546594485918973"><ele>291.0</ele><time>2026-04-28T16:45:19.973Z</time></trkpt><trkpt lat="39.78319573627009" lon="9.546437924315747"><ele>291.0</ele><time>2026-04-28T16:45:20.973Z</time></trkpt><trkpt lat="39.78328818594259" lon="9.546302339164646"><ele>293.75</ele><time>2026-04-28T16:45:21.973Z</time></trkpt><trkpt lat="39.783390855736684" lon="9.546188021559631"><ele>296.5</ele><time>2026-04-28T16:45:22.973Z</time></trkpt><trkpt lat="39.78350928776641" lon="9.546104371371792"><ele>299.25</ele><time>2026-04-28T16:45:23.973Z</time></trkpt><trkpt lat="39.78363107489184" lon="9.546052468625993"><ele>302.0</ele><time>2026-04-28T16:45:24.973Z</time></trkpt><trkpt lat="39.783754748363066" lon="9.546004191329347"><ele>302.0</ele><time>2026-04-28T16:45:25.973Z</time></trkpt><trkpt lat="39.78386862139601" lon="9.54595324253913"><ele>302.0</ele><time>2026-04-28T16:45:26.973Z</time></trkpt><trkpt lat="39.78397334476985" lon="9.545892893547316"><ele>302.0</ele><time>2026-04-28T16:45:27.972Z</time></trkpt><trkpt lat="39.78406545829013" lon="9.545816445593958"><ele>302.0</ele><time>2026-04-28T16:45:28.973Z</time></trkpt><trkpt lat="39.78414724493702" lon="9.545735008647275"><ele>302.0</ele><time>2026-04-28T16:45:29.973Z</time></trkpt><trkpt lat="39.78421729574479" lon="9.54564770348277"><ele>302.0</ele><time>2026-04-28T16:45:30.972Z</time></trkpt><trkpt lat="39.784265775566034" lon="9.545565191645403"><ele>302.0</ele><time>2026-04-28T16:45:31.973Z</time></trkpt><trkpt lat="39.78430125151973" lon="9.545470001392264"><ele>302.0</ele><time>2026-04-28T16:45:32.973Z</time></trkpt><trkpt lat="39.78432704747432" lon="9.545380376514519"><ele>302.0</ele><time>2026-04-28T16:45:33.973Z</time></trkpt><trkpt lat="39.78436875569369" lon="9.545247903064471"><ele>302.0</ele><time>2026-04-28T16:45:35.973Z</time></trkpt><trkpt lat="39.78434582926387" lon="9.545122266029788"><ele>302.0</ele><time>2026-04-28T16:47:29.975Z</time></trkpt><trkpt lat="39.78436375958628" lon="9.544985603271769"><ele>304.0</ele><time>2026-04-28T16:47:31.975Z</time></trkpt><trkpt lat="39.78437356392604" lon="9.544894731013532"><ele>306.0</ele><time>2026-04-28T16:47:32.975Z</time></trkpt><trkpt lat="39.78441014154007" lon="9.544805574611093"><ele>308.0</ele><time>2026-04-28T16:47:33.975Z</time></trkpt><trkpt lat="39.78446153634425" lon="9.544716403393767"><ele>310.0</ele><time>2026-04-28T16:47:34.975Z</time></trkpt><trkpt lat="39.78452770443586" lon="9.544622693272878"><ele>312.0</ele><time>2026-04-28T16:47:35.975Z</time></trkpt><trkpt lat="39.78460722459098" lon="9.544529240784351"><ele>314.0</ele><time>2026-04-28T16:47:36.975Z</time></trkpt><trkpt lat="39.78468644070408" lon="9.544425380427807"><ele>314.0</ele><time>2026-04-28T16:47:37.975Z</time></trkpt><trkpt lat="39.78476653549258" lon="9.544322103022035"><ele>314.0</ele><time>2026-04-28T16:47:38.975Z</time></trkpt><trkpt lat="39.78484415872738" lon="9.544213818542937"><ele>314.0</ele><time>2026-04-28T16:47:39.974Z</time></trkpt><trkpt lat="39.784923228173" lon="9.5441042123734"><ele>314.0</ele><time>2026-04-28T16:47:40.974Z</time></trkpt><trkpt lat="39.785009889707055" lon="9.544000740222474"><ele>314.0</ele><time>2026-04-28T16:47:41.975Z</time></trkpt><trkpt lat="39.785105878170214" lon="9.543915238055181"><ele>314.0</ele><time>2026-04-28T16:47:42.975Z</time></trkpt><trkpt lat="39.785211588781024" lon="9.543860401015346"><ele>314.0</ele><time>2026-04-28T16:47:43.975Z</time></trkpt><trkpt lat="39.7853207004843" lon="9.543811265650238"><ele>314.0</ele><time>2026-04-28T16:47:44.975Z</time></trkpt><trkpt lat="39.785431127819336" lon="9.543751892012386"><ele>315.2</ele><time>2026-04-28T16:47:45.975Z</time></trkpt><trkpt lat="39.78553062852936" lon="9.543681551633908"><ele>316.4</ele><time>2026-04-28T16:47:46.975Z</time></trkpt><trkpt lat="39.78561714111221" lon="9.543595140112055"><ele>317.6</ele><time>2026-04-28T16:47:47.975Z</time></trkpt><trkpt lat="39.78569595909056" lon="9.543495105486166"><ele>318.8</ele><time>2026-04-28T16:47:48.975Z</time></trkpt><trkpt lat="39.7857573353435" lon="9.543384260927454"><ele>320.0</ele><time>2026-04-28T16:47:49.975Z</time></trkpt><trkpt lat="39.785801750848954" lon="9.543262693743435"><ele>320.0</ele><time>2026-04-28T16:47:50.975Z</time></trkpt><trkpt lat="39.785834232010075" lon="9.543131461443163"><ele>320.0</ele><time>2026-04-28T16:47:51.975Z</time></trkpt><trkpt lat="39.78585688674579" lon="9.54299145393678"><ele>320.0</ele><time>2026-04-28T16:47:52.975Z</time></trkpt><trkpt lat="39.785869239181565" lon="9.5428419814888"><ele>320.0</ele><time>2026-04-28T16:47:53.975Z</time></trkpt><trkpt lat="39.7858776086777" lon="9.542694887336674"><ele>320.0</ele><time>2026-04-28T16:47:54.975Z</time></trkpt><trkpt lat="39.78589085050345" lon="9.542553554841865"><ele>324.0</ele><time>2026-04-28T16:47:55.975Z</time></trkpt><trkpt lat="39.785921649351465" lon="9.542416497651056"><ele>328.0</ele><time>2026-04-28T16:47:56.975Z</time></trkpt><trkpt lat="39.78597166778507" lon="9.542289330953203"><ele>332.0</ele><time>2026-04-28T16:47:57.975Z</time></trkpt><trkpt lat="39.78604191323743" lon="9.542171475919119"><ele>336.0</ele><time>2026-04-28T16:47:58.975Z</time></trkpt><trkpt lat="39.78612629671102" lon="9.54205692176725"><ele>334.0</ele><time>2026-04-28T16:47:59.975Z</time></trkpt><trkpt lat="39.78621366699242" lon="9.541942369282479"><ele>332.0</ele><time>2026-04-28T16:48:00.975Z</time></trkpt><trkpt lat="39.78629336615369" lon="9.541822924064222"><ele>330.0</ele><time>2026-04-28T16:48:01.975Z</time></trkpt><trkpt lat="39.78635406291651" lon="9.541693567138719"><ele>328.0</ele><time>2026-04-28T16:48:02.975Z</time></trkpt><trkpt lat="39.78638800888088" lon="9.5415601096956"><ele>328.0</ele><time>2026-04-28T16:48:03.975Z</time></trkpt><trkpt lat="39.7864003910224" lon="9.541421559642647"><ele>328.0</ele><time>2026-04-28T16:48:04.975Z</time></trkpt><trkpt lat="39.786408189387274" lon="9.541275124032897"><ele>328.0</ele><time>2026-04-28T16:48:05.975Z</time></trkpt><trkpt lat="39.78636404959732" lon="9.54113536086762"><ele>328.0</ele><time>2026-04-28T16:48:06.975Z</time></trkpt><trkpt lat="39.78631912132981" lon="9.540999857672668"><ele>328.0</ele><time>2026-04-28T16:48:07.975Z</time></trkpt><trkpt lat="39.78627227051027" lon="9.540861062536967"><ele>327.5</ele><time>2026-04-28T16:48:08.975Z</time></trkpt><trkpt lat="39.786191777763676" lon="9.540742135697283"><ele>327.0</ele><time>2026-04-28T16:48:09.975Z</time></trkpt><trkpt lat="39.78608979884079" lon="9.54064118285185"><ele>326.5</ele><time>2026-04-28T16:48:10.975Z</time></trkpt><trkpt lat="39.78597338158951" lon="9.54056548132498"><ele>326.0</ele><time>2026-04-28T16:48:11.975Z</time></trkpt><trkpt lat="39.78584541243726" lon="9.540536561685977"><ele>326.25</ele><time>2026-04-28T16:48:12.975Z</time></trkpt><trkpt lat="39.785725497132766" lon="9.540485861914817"><ele>326.5</ele><time>2026-04-28T16:48:13.975Z</time></trkpt><trkpt lat="39.78561353156643" lon="9.540418391552784"><ele>326.75</ele><time>2026-04-28T16:48:14.975Z</time></trkpt><trkpt lat="39.78551124975652" lon="9.540331451038137"><ele>327.0</ele><time>2026-04-28T16:48:15.975Z</time></trkpt><trkpt lat="39.78541553131704" lon="9.540218160891312"><ele>327.0</ele><time>2026-04-28T16:48:16.975Z</time></trkpt><trkpt lat="39.78532460899883" lon="9.540088265625554"><ele>327.0</ele><time>2026-04-28T16:48:17.975Z</time></trkpt><trkpt lat="39.78523191641276" lon="9.53994512685796"><ele>327.0</ele><time>2026-04-28T16:48:18.975Z</time></trkpt><trkpt lat="39.78514280102398" lon="9.539793257471855"><ele>327.0</ele><time>2026-04-28T16:48:19.976Z</time></trkpt><trkpt lat="39.78505194827137" lon="9.539637015383883"><ele>332.6666666666667</ele><time>2026-04-28T16:48:20.976Z</time></trkpt><trkpt lat="39.7849593808165" lon="9.539480257730608"><ele>338.33333333333337</ele><time>2026-04-28T16:48:21.976Z</time></trkpt><trkpt lat="39.78486607306743" lon="9.53932624083731"><ele>344.0</ele><time>2026-04-28T16:48:22.976Z</time></trkpt><trkpt lat="39.784772955677866" lon="9.539171737239457"><ele>344.0</ele><time>2026-04-28T16:48:23.976Z</time></trkpt><trkpt lat="39.78468702312552" lon="9.53901564316405"><ele>344.0</ele><time>2026-04-28T16:48:24.976Z</time></trkpt><trkpt lat="39.78461093445244" lon="9.53885626193455"><ele>344.0</ele><time>2026-04-28T16:48:25.976Z</time></trkpt><trkpt lat="39.7845518966481" lon="9.53868996826199"><ele>344.0</ele><time>2026-04-28T16:48:26.976Z</time></trkpt><trkpt lat="39.78450564639597" lon="9.5385111153565"><ele>340.75</ele><time>2026-04-28T16:48:27.976Z</time></trkpt><trkpt lat="39.784489552661306" lon="9.538325461336871"><ele>337.5</ele><time>2026-04-28T16:48:28.976Z</time></trkpt><trkpt lat="39.784452010231846" lon="9.538141776677918"><ele>334.25</ele><time>2026-04-28T16:48:29.976Z</time></trkpt><trkpt lat="39.784429971048894" lon="9.537954036641276"><ele>331.0</ele><time>2026-04-28T16:48:30.976Z</time></trkpt><trkpt lat="39.78441690237646" lon="9.53777533076695"><ele>330.5</ele><time>2026-04-28T16:48:31.976Z</time></trkpt><trkpt lat="39.78441960192919" lon="9.537600957571902"><ele>330.0</ele><time>2026-04-28T16:48:32.976Z</time></trkpt><trkpt lat="39.78443278867196" lon="9.537423962544844"><ele>329.5</ele><time>2026-04-28T16:48:33.976Z</time></trkpt><trkpt lat="39.78445250384979" lon="9.537272601692758"><ele>329.0</ele><time>2026-04-28T16:48:34.976Z</time></trkpt><trkpt lat="39.78447032200938" lon="9.537123840343764"><ele>328.75</ele><time>2026-04-28T16:48:35.976Z</time></trkpt><trkpt lat="39.78443037752537" lon="9.536989884622164"><ele>328.5</ele><time>2026-04-28T16:48:36.976Z</time></trkpt><trkpt lat="39.78438050551873" lon="9.536859977827286"><ele>328.25</ele><time>2026-04-28T16:48:37.976Z</time></trkpt><trkpt lat="39.784316148655684" lon="9.536726399494377"><ele>328.0</ele><time>2026-04-28T16:48:38.976Z</time></trkpt><trkpt lat="39.784244715969464" lon="9.5365814719068"><ele>335.75</ele><time>2026-04-28T16:48:39.976Z</time></trkpt><trkpt lat="39.784180877202665" lon="9.536420485849607"><ele>343.5</ele><time>2026-04-28T16:48:40.976Z</time></trkpt><trkpt lat="39.784123960090575" lon="9.536246125262997"><ele>351.25</ele><time>2026-04-28T16:48:41.976Z</time></trkpt><trkpt lat="39.78406593415783" lon="9.536058518899733"><ele>359.0</ele><time>2026-04-28T16:48:42.976Z</time></trkpt><trkpt lat="39.78400920093573" lon="9.535875236785596"><ele>359.0</ele><time>2026-04-28T16:48:43.976Z</time></trkpt><trkpt lat="39.783946712495734" lon="9.535688498083537"><ele>359.0</ele><time>2026-04-28T16:48:44.976Z</time></trkpt><trkpt lat="39.78388741390439" lon="9.535511154314113"><ele>359.0</ele><time>2026-04-28T16:48:45.976Z</time></trkpt><trkpt lat="39.78383465078682" lon="9.535344870454313"><ele>359.0</ele><time>2026-04-28T16:48:46.976Z</time></trkpt><trkpt lat="39.78379496754761" lon="9.53519261548092"><ele>359.25</ele><time>2026-04-28T16:48:47.976Z</time></trkpt><trkpt lat="39.783767884000206" lon="9.535043927894945"><ele>359.5</ele><time>2026-04-28T16:48:48.976Z</time></trkpt><trkpt lat="39.78376742679556" lon="9.534897625005776"><ele>359.75</ele><time>2026-04-28T16:48:49.976Z</time></trkpt><trkpt lat="39.78379415666345" lon="9.534757485194431"><ele>360.0</ele><time>2026-04-28T16:48:50.976Z</time></trkpt><trkpt lat="39.78384426080692" lon="9.53462728612205"><ele>363.75</ele><time>2026-04-28T16:48:51.976Z</time></trkpt><trkpt lat="39.78391574698758" lon="9.534509551934166"><ele>367.5</ele><time>2026-04-28T16:48:52.976Z</time></trkpt><trkpt lat="39.78400206194456" lon="9.534397345075238"><ele>371.25</ele><time>2026-04-28T16:48:53.976Z</time></trkpt><trkpt lat="39.784093631949865" lon="9.53427932351391"><ele>375.0</ele><time>2026-04-28T16:48:54.976Z</time></trkpt><trkpt lat="39.784181992374286" lon="9.534151094529024"><ele>375.0</ele><time>2026-04-28T16:48:55.976Z</time></trkpt><trkpt lat="39.78425851550924" lon="9.534005698321025"><ele>375.0</ele><time>2026-04-28T16:48:56.976Z</time></trkpt><trkpt lat="39.78432233794604" lon="9.533842554669894"><ele>375.0</ele><time>2026-04-28T16:48:57.976Z</time></trkpt><trkpt lat="39.784378084221856" lon="9.533665015906186"><ele>375.0</ele><time>2026-04-28T16:48:58.976Z</time></trkpt><trkpt lat="39.784430568439554" lon="9.533475340370106"><ele>372.3333333333333</ele><time>2026-04-28T16:48:59.976Z</time></trkpt><trkpt lat="39.78447829090258" lon="9.533282754471813"><ele>369.66666666666663</ele><time>2026-04-28T16:49:00.976Z</time></trkpt><trkpt lat="39.78452279229119" lon="9.533079503672663"><ele>367.0</ele><time>2026-04-28T16:49:01.976Z</time></trkpt><trkpt lat="39.78456993108022" lon="9.532869686983577"><ele>367.0</ele><time>2026-04-28T16:49:02.976Z</time></trkpt><trkpt lat="39.78461799417174" lon="9.532656757670312"><ele>367.0</ele><time>2026-04-28T16:49:03.976Z</time></trkpt><trkpt lat="39.78466731394013" lon="9.532444604802128"><ele>367.0</ele><time>2026-04-28T16:49:04.976Z</time></trkpt><trkpt lat="39.7847181882169" lon="9.532230328861061"><ele>371.0</ele><time>2026-04-28T16:49:05.976Z</time></trkpt><trkpt lat="39.784767148521404" lon="9.532021991774743"><ele>375.0</ele><time>2026-04-28T16:49:06.976Z</time></trkpt><trkpt lat="39.7848121462749" lon="9.531823542158934"><ele>379.0</ele><time>2026-04-28T16:49:07.976Z</time></trkpt><trkpt lat="39.784849741284354" lon="9.531638507601686"><ele>379.0</ele><time>2026-04-28T16:49:08.976Z</time></trkpt><trkpt lat="39.78487876590508" lon="9.531468411259178"><ele>379.0</ele><time>2026-04-28T16:49:09.976Z</time></trkpt><trkpt lat="39.78489596983172" lon="9.53130637274349"><ele>379.0</ele><time>2026-04-28T16:49:10.976Z</time></trkpt><trkpt lat="39.78489695051079" lon="9.531143888809606"><ele>379.0</ele><time>2026-04-28T16:49:11.977Z</time></trkpt><trkpt lat="39.784880398076" lon="9.530982643457119"><ele>378.5</ele><time>2026-04-28T16:49:12.977Z</time></trkpt><trkpt lat="39.78484714035882" lon="9.530818423652013"><ele>378.0</ele><time>2026-04-28T16:49:13.977Z</time></trkpt><trkpt lat="39.784802682661336" lon="9.530650292480589"><ele>377.5</ele><time>2026-04-28T16:49:14.977Z</time></trkpt><trkpt lat="39.784749294245266" lon="9.530481341982693"><ele>377.0</ele><time>2026-04-28T16:49:15.977Z</time></trkpt><trkpt lat="39.784693168058276" lon="9.530313236458419"><ele>376.25</ele><time>2026-04-28T16:49:16.977Z</time></trkpt><trkpt lat="39.78464628460599" lon="9.530148588395276"><ele>375.5</ele><time>2026-04-28T16:49:17.977Z</time></trkpt><trkpt lat="39.784612385441996" lon="9.529980720148886"><ele>374.75</ele><time>2026-04-28T16:49:18.977Z</time></trkpt><trkpt lat="39.78459360825298" lon="9.52981233672037"><ele>374.0</ele><time>2026-04-28T16:49:19.977Z</time></trkpt><trkpt lat="39.78458685646334" lon="9.529639123780624"><ele>377.0</ele><time>2026-04-28T16:49:20.977Z</time></trkpt><trkpt lat="39.78460017397827" lon="9.529467018207441"><ele>380.0</ele><time>2026-04-28T16:49:21.977Z</time></trkpt><trkpt lat="39.78462992464174" lon="9.52930381865079"><ele>383.0</ele><time>2026-04-28T16:49:22.977Z</time></trkpt><trkpt lat="39.784683229722226" lon="9.529149032750638"><ele>386.0</ele><time>2026-04-28T16:49:23.977Z</time></trkpt><trkpt lat="39.78475798149323" lon="9.52899533772857"><ele>386.0</ele><time>2026-04-28T16:49:24.977Z</time></trkpt><trkpt lat="39.78483390994932" lon="9.528840105283834"><ele>386.0</ele><time>2026-04-28T16:49:25.977Z</time></trkpt><trkpt lat="39.784922422539445" lon="9.528684515131564"><ele>386.0</ele><time>2026-04-28T16:49:26.977Z</time></trkpt><trkpt lat="39.78501503240905" lon="9.528525914311269"><ele>386.0</ele><time>2026-04-28T16:49:27.977Z</time></trkpt><trkpt lat="39.78510858670541" lon="9.52837116734971"><ele>385.25</ele><time>2026-04-28T16:49:28.977Z</time></trkpt><trkpt lat="39.78520539766407" lon="9.528221484404574"><ele>384.5</ele><time>2026-04-28T16:49:29.977Z</time></trkpt><trkpt lat="39.785309207748185" lon="9.528084247973153"><ele>383.75</ele><time>2026-04-28T16:49:30.977Z</time></trkpt><trkpt lat="39.78541913729418" lon="9.527967478772819"><ele>383.0</ele><time>2026-04-28T16:49:31.977Z</time></trkpt><trkpt lat="39.78553876418206" lon="9.527866055641418"><ele>391.0</ele><time>2026-04-28T16:49:32.977Z</time></trkpt><trkpt lat="39.785663545861816" lon="9.527776539625505"><ele>399.0</ele><time>2026-04-28T16:49:33.977Z</time></trkpt><trkpt lat="39.785791940678806" lon="9.527697600731726"><ele>407.0</ele><time>2026-04-28T16:49:34.977Z</time></trkpt><trkpt lat="39.78592493090766" lon="9.527635947789163"><ele>415.0</ele><time>2026-04-28T16:49:35.977Z</time></trkpt><trkpt lat="39.78606336651358" lon="9.527600759010555"><ele>415.25</ele><time>2026-04-28T16:49:36.977Z</time></trkpt><trkpt lat="39.78620408977965" lon="9.52757735362669"><ele>415.5</ele><time>2026-04-28T16:49:37.977Z</time></trkpt><trkpt lat="39.78634693689553" lon="9.527570674130114"><ele>415.75</ele><time>2026-04-28T16:49:38.976Z</time></trkpt><trkpt lat="39.78649046622374" lon="9.527589500648372"><ele>416.0</ele><time>2026-04-28T16:49:39.977Z</time></trkpt><trkpt lat="39.786633695262786" lon="9.527625557389397"><ele>416.0</ele><time>2026-04-28T16:49:40.977Z</time></trkpt><trkpt lat="39.786779031481906" lon="9.527678516288777"><ele>416.0</ele><time>2026-04-28T16:49:41.977Z</time></trkpt><trkpt lat="39.786927966813" lon="9.527752049460373"><ele>416.0</ele><time>2026-04-28T16:49:42.976Z</time></trkpt><trkpt lat="39.787077161105984" lon="9.527831167980636"><ele>410.0</ele><time>2026-04-28T16:49:43.976Z</time></trkpt><trkpt lat="39.787230671353" lon="9.527908262122345"><ele>404.0</ele><time>2026-04-28T16:49:44.977Z</time></trkpt><trkpt lat="39.78738146490037" lon="9.527970585144997"><ele>398.0</ele><time>2026-04-28T16:49:45.977Z</time></trkpt><trkpt lat="39.787529790816535" lon="9.528019923255451"><ele>400.0</ele><time>2026-04-28T16:49:46.977Z</time></trkpt><trkpt lat="39.78768650877177" lon="9.528046950617409"><ele>402.0</ele><time>2026-04-28T16:49:47.977Z</time></trkpt><trkpt lat="39.787841795314456" lon="9.528049932545585"><ele>404.0</ele><time>2026-04-28T16:49:48.977Z</time></trkpt><trkpt lat="39.78799507288369" lon="9.528032744882639"><ele>404.0</ele><time>2026-04-28T16:49:49.977Z</time></trkpt><trkpt lat="39.788145796579755" lon="9.528001540055934"><ele>404.0</ele><time>2026-04-28T16:49:50.976Z</time></trkpt><trkpt lat="39.78829257733396" lon="9.527957418058007"><ele>404.0</ele><time>2026-04-28T16:49:51.977Z</time></trkpt><trkpt lat="39.78842359274635" lon="9.52789982561872"><ele>404.0</ele><time>2026-04-28T16:49:52.977Z</time></trkpt><trkpt lat="39.78854304781607" lon="9.527824541933137"><ele>408.0</ele><time>2026-04-28T16:49:53.977Z</time></trkpt><trkpt lat="39.788647595636974" lon="9.527727069184335"><ele>412.0</ele><time>2026-04-28T16:49:54.977Z</time></trkpt><trkpt lat="39.78873616265215" lon="9.52760919980832"><ele>416.0</ele><time>2026-04-28T16:49:55.977Z</time></trkpt><trkpt lat="39.78880384177107" lon="9.527477943865923"><ele>420.0</ele><time>2026-04-28T16:49:56.977Z</time></trkpt><trkpt lat="39.7888717889733" lon="9.5273499652599"><ele>420.0</ele><time>2026-04-28T16:49:57.977Z</time></trkpt><trkpt lat="39.78889031634149" lon="9.527199446031402"><ele>420.0</ele><time>2026-04-28T16:49:58.977Z</time></trkpt><trkpt lat="39.78890669064691" lon="9.527066392600313"><ele>420.0</ele><time>2026-04-28T16:49:59.977Z</time></trkpt><trkpt lat="39.788910294920086" lon="9.52694491354351"><ele>420.0</ele><time>2026-04-28T16:50:00.977Z</time></trkpt><trkpt lat="39.788899509932314" lon="9.526841432478005"><ele>420.0</ele><time>2026-04-28T16:50:01.977Z</time></trkpt><trkpt lat="39.788871547359676" lon="9.526743156569836"><ele>419.1666666666667</ele><time>2026-04-28T16:50:02.977Z</time></trkpt><trkpt lat="39.78883838117431" lon="9.526651793461813"><ele>418.33333333333337</ele><time>2026-04-28T16:50:03.977Z</time></trkpt><trkpt lat="39.78880399822795" lon="9.526569617997902"><ele>417.5</ele><time>2026-04-28T16:50:04.977Z</time></trkpt><trkpt lat="39.78877461244879" lon="9.526453496258469"><ele>416.6666666666667</ele><time>2026-04-28T16:50:06.977Z</time></trkpt><trkpt lat="39.78877104630012" lon="9.526371607942007"><ele>415.83333333333337</ele><time>2026-04-28T16:50:23.977Z</time></trkpt><trkpt lat="39.78870860414359" lon="9.526304342701435"><ele>415.0</ele><time>2026-04-28T16:50:36.978Z</time></trkpt><trkpt lat="39.788656109815875" lon="9.526239736685666"><ele>412.6666666666667</ele><time>2026-04-28T16:50:38.978Z</time></trkpt><trkpt lat="39.78860056233312" lon="9.526135284445097"><ele>410.33333333333337</ele><time>2026-04-28T16:50:40.978Z</time></trkpt><trkpt lat="39.788568748708954" lon="9.526054540254252"><ele>408.0</ele><time>2026-04-28T16:50:41.978Z</time></trkpt><trkpt lat="39.788532501557434" lon="9.525969171689093"><ele>405.66666666666663</ele><time>2026-04-28T16:50:42.978Z</time></trkpt><trkpt lat="39.78849272564506" lon="9.52587300247737"><ele>403.3333333333333</ele><time>2026-04-28T16:50:43.978Z</time></trkpt><trkpt lat="39.78845288032204" lon="9.525763147150164"><ele>401.0</ele><time>2026-04-28T16:50:44.978Z</time></trkpt><trkpt lat="39.788415304365174" lon="9.525651340670308"><ele>404.8</ele><time>2026-04-28T16:50:45.978Z</time></trkpt><trkpt lat="39.78837479286572" lon="9.525529641597934"><ele>408.6</ele><time>2026-04-28T16:50:46.978Z</time></trkpt><trkpt lat="39.788328073223354" lon="9.525403466783432"><ele>412.4</ele><time>2026-04-28T16:50:47.978Z</time></trkpt><trkpt lat="39.78826314725525" lon="9.525285958408357"><ele>416.2</ele><time>2026-04-28T16:50:48.978Z</time></trkpt><trkpt lat="39.78818683345211" lon="9.525167703283593"><ele>420.0</ele><time>2026-04-28T16:50:49.978Z</time></trkpt><trkpt lat="39.78811158843665" lon="9.525063450440783"><ele>420.0</ele><time>2026-04-28T16:50:50.978Z</time></trkpt><trkpt lat="39.78803532678115" lon="9.524958357617288"><ele>420.0</ele><time>2026-04-28T16:50:51.978Z</time></trkpt><trkpt lat="39.787959272756325" lon="9.524840789265015"><ele>420.0</ele><time>2026-04-28T16:50:52.978Z</time></trkpt><trkpt lat="39.787888713111116" lon="9.524715884929797"><ele>420.0</ele><time>2026-04-28T16:50:53.978Z</time></trkpt><trkpt lat="39.787828097086596" lon="9.524583571849968"><ele>415.75</ele><time>2026-04-28T16:50:54.978Z</time></trkpt><trkpt lat="39.7877760774944" lon="9.524441971700806"><ele>411.5</ele><time>2026-04-28T16:50:55.978Z</time></trkpt><trkpt lat="39.787733081709746" lon="9.524298296495514"><ele>407.25</ele><time>2026-04-28T16:50:56.978Z</time></trkpt><trkpt lat="39.78770021239209" lon="9.524147212424479"><ele>403.0</ele><time>2026-04-28T16:50:57.978Z</time></trkpt><trkpt lat="39.787669561883625" lon="9.523990859429599"><ele>410.75</ele><time>2026-04-28T16:50:58.978Z</time></trkpt><trkpt lat="39.7876394512943" lon="9.523830977471144"><ele>418.5</ele><time>2026-04-28T16:50:59.978Z</time></trkpt><trkpt lat="39.78760424668481" lon="9.523673060769674"><ele>426.25</ele><time>2026-04-28T16:51:00.978Z</time></trkpt><trkpt lat="39.7875703339113" lon="9.52351813149025"><ele>434.0</ele><time>2026-04-28T16:51:01.978Z</time></trkpt><trkpt lat="39.787529294157586" lon="9.523362660534726"><ele>434.0</ele><time>2026-04-28T16:51:02.978Z</time></trkpt><trkpt lat="39.787489390422145" lon="9.523215930124644"><ele>434.0</ele><time>2026-04-28T16:51:03.978Z</time></trkpt><trkpt lat="39.787457889496714" lon="9.5230794394902"><ele>434.0</ele><time>2026-04-28T16:51:04.978Z</time></trkpt><trkpt lat="39.7874345281984" lon="9.522953047533022"><ele>434.0</ele><time>2026-04-28T16:51:05.978Z</time></trkpt><trkpt lat="39.787417388619325" lon="9.52283812098958"><ele>434.0</ele><time>2026-04-28T16:51:06.978Z</time></trkpt><trkpt lat="39.787426451135524" lon="9.52273210099064"><ele>434.16666666666663</ele><time>2026-04-28T16:51:07.978Z</time></trkpt><trkpt lat="39.78742803547762" lon="9.52263415217404"><ele>434.3333333333333</ele><time>2026-04-28T16:51:08.978Z</time></trkpt><trkpt lat="39.78743422877297" lon="9.522547585925768"><ele>434.5</ele><time>2026-04-28T16:51:09.978Z</time></trkpt><trkpt lat="39.787448387450304" lon="9.522409930717266"><ele>434.66666666666663</ele><time>2026-04-28T16:51:11.978Z</time></trkpt><trkpt lat="39.78746122603158" lon="9.522328877680128"><ele>434.8333333333333</ele><time>2026-04-28T16:51:13.978Z</time></trkpt><trkpt lat="39.78748341602811" lon="9.522219800060311"><ele>435.0</ele><time>2026-04-28T16:51:17.978Z</time></trkpt><trkpt lat="39.78746558696331" lon="9.522307774864295"><ele>435.0</ele><time>2026-04-28T16:51:27.979Z</time></trkpt><trkpt lat="39.78745144541268" lon="9.522391540211546"><ele>435.0</ele><time>2026-04-28T16:51:42.979Z</time></trkpt><trkpt lat="39.787425979187994" lon="9.522466900181671"><ele>435.0</ele><time>2026-04-28T16:51:45.978Z</time></trkpt><trkpt lat="39.78745223392807" lon="9.522386488256616"><ele>435.0</ele><time>2026-04-28T16:51:55.979Z</time></trkpt><trkpt lat="39.787474945338055" lon="9.52226159780905"><ele>435.0</ele><time>2026-04-28T16:56:45.983Z</time></trkpt><trkpt lat="39.7874942959656" lon="9.522164002684406"><ele>435.0</ele><time>2026-04-28T16:56:47.983Z</time></trkpt><trkpt lat="39.78751890418504" lon="9.522061448388179"><ele>435.8</ele><time>2026-04-28T16:56:50.983Z</time></trkpt><trkpt lat="39.78758287589544" lon="9.521994450854073"><ele>436.6</ele><time>2026-04-28T16:56:52.983Z</time></trkpt><trkpt lat="39.7876224167641" lon="9.52186020877027"><ele>437.4</ele><time>2026-04-28T16:56:54.983Z</time></trkpt><trkpt lat="39.787644765185945" lon="9.521777107457103"><ele>438.2</ele><time>2026-04-28T16:56:55.983Z</time></trkpt><trkpt lat="39.78770767368648" lon="9.5216271917091"><ele>439.0</ele><time>2026-04-28T16:56:57.983Z</time></trkpt><trkpt lat="39.787750649549785" lon="9.521557668018353"><ele>439.0</ele><time>2026-04-28T16:56:58.983Z</time></trkpt><trkpt lat="39.78783352725582" lon="9.521479202786375"><ele>439.0</ele><time>2026-04-28T16:57:00.983Z</time></trkpt><trkpt lat="39.787942899977196" lon="9.52146186436495"><ele>439.0</ele><time>2026-04-28T16:57:02.983Z</time></trkpt><trkpt lat="39.78806014880715" lon="9.521438952745527"><ele>439.0</ele><time>2026-04-28T16:57:04.983Z</time></trkpt><trkpt lat="39.788121968235025" lon="9.52152164140282"><ele>439.0</ele><time>2026-04-28T16:57:05.983Z</time></trkpt><trkpt lat="39.78824593781675" lon="9.521562282311187"><ele>439.0</ele><time>2026-04-28T16:57:07.984Z</time></trkpt><trkpt lat="39.78831375850666" lon="9.521586097912776"><ele>439.0</ele><time>2026-04-28T16:57:08.984Z</time></trkpt><trkpt lat="39.78838343455272" lon="9.52159833998208"><ele>439.0</ele><time>2026-04-28T16:57:09.984Z</time></trkpt><trkpt lat="39.788451413319216" lon="9.521615948431084"><ele>439.0</ele><time>2026-04-28T16:57:10.984Z</time></trkpt><trkpt lat="39.78852143501585" lon="9.521633163627563"><ele>439.0</ele><time>2026-04-28T16:57:11.984Z</time></trkpt><trkpt lat="39.788589415392785" lon="9.521646344054082"><ele>439.0</ele><time>2026-04-28T16:57:12.984Z</time></trkpt><trkpt lat="39.78866510382503" lon="9.521648025839939"><ele>439.0</ele><time>2026-04-28T16:57:13.984Z</time></trkpt><trkpt lat="39.7887428416704" lon="9.521662274784267"><ele>439.1666666666667</ele><time>2026-04-28T16:57:14.984Z</time></trkpt><trkpt lat="39.78882504861431" lon="9.521642869775503"><ele>439.33333333333337</ele><time>2026-04-28T16:57:15.984Z</time></trkpt><trkpt lat="39.788903166175224" lon="9.521613395976157"><ele>439.5</ele><time>2026-04-28T16:57:16.984Z</time></trkpt><trkpt lat="39.78897886808351" lon="9.52157777524756"><ele>439.66666666666663</ele><time>2026-04-28T16:57:17.984Z</time></trkpt><trkpt lat="39.78906123362627" lon="9.521534431006591"><ele>439.8333333333333</ele><time>2026-04-28T16:57:18.984Z</time></trkpt><trkpt lat="39.78914537309605" lon="9.521483493836323"><ele>440.0</ele><time>2026-04-28T16:57:19.984Z</time></trkpt><trkpt lat="39.78922931629949" lon="9.521428314119527"><ele>439.99999999999994</ele><time>2026-04-28T16:57:20.984Z</time></trkpt><trkpt lat="39.789302213249876" lon="9.521383159877821"><ele>440.0</ele><time>2026-04-28T16:57:21.984Z</time></trkpt><trkpt lat="39.78938294167853" lon="9.521325505095254"><ele>440.0</ele><time>2026-04-28T16:57:22.984Z</time></trkpt><trkpt lat="39.789432174343716" lon="9.521242427924882"><ele>440.0</ele><time>2026-04-28T16:57:23.984Z</time></trkpt><trkpt lat="39.78944777929349" lon="9.521140143864585"><ele>439.99999999999994</ele><time>2026-04-28T16:57:24.984Z</time></trkpt><trkpt lat="39.789456979090225" lon="9.521056933897801"><ele>440.0</ele><time>2026-04-28T16:57:25.984Z</time></trkpt><trkpt lat="39.789468578052364" lon="9.520972697047204"><ele>439.3333333333333</ele><time>2026-04-28T16:57:26.984Z</time></trkpt><trkpt lat="39.78951871608561" lon="9.52083436477228"><ele>438.66666666666663</ele><time>2026-04-28T16:57:28.984Z</time></trkpt><trkpt lat="39.789573258782006" lon="9.52078336087208"><ele>438.0</ele><time>2026-04-28T16:57:29.984Z</time></trkpt><trkpt lat="39.789610467565765" lon="9.520714807707133"><ele>437.33333333333337</ele><time>2026-04-28T16:57:30.984Z</time></trkpt><trkpt lat="39.78967422997607" lon="9.52061376366967"><ele>436.6666666666667</ele><time>2026-04-28T16:57:32.984Z</time></trkpt><trkpt lat="39.789737905321644" lon="9.520539423146847"><ele>436.0</ele><time>2026-04-28T16:57:35.984Z</time></trkpt><trkpt lat="39.78978944005775" lon="9.52048941288521"><ele>436.0</ele><time>2026-04-28T16:57:37.984Z</time></trkpt><trkpt lat="39.78985559739366" lon="9.520412404122707"><ele>436.0</ele><time>2026-04-28T16:57:39.984Z</time></trkpt><trkpt lat="39.78994440796411" lon="9.520319092985112"><ele>436.0</ele><time>2026-04-28T16:57:41.984Z</time></trkpt><trkpt lat="39.7900305281092" lon="9.520212269716707"><ele>436.0</ele><time>2026-04-28T16:57:43.984Z</time></trkpt><trkpt lat="39.790110380604446" lon="9.520094600445152"><ele>436.0</ele><time>2026-04-28T16:57:45.984Z</time></trkpt><trkpt lat="39.790146715530845" lon="9.520022779743332"><ele>434.8</ele><time>2026-04-28T16:57:46.984Z</time></trkpt><trkpt lat="39.79021765079092" lon="9.519899327460413"><ele>433.6</ele><time>2026-04-28T16:57:48.984Z</time></trkpt><trkpt lat="39.790299572672865" lon="9.519790249876918"><ele>432.4</ele><time>2026-04-28T16:57:50.984Z</time></trkpt><trkpt lat="39.790336117348986" lon="9.51971558031017"><ele>431.2</ele><time>2026-04-28T16:57:51.984Z</time></trkpt><trkpt lat="39.790401982563225" lon="9.519651064981245"><ele>430.0</ele><time>2026-04-28T16:57:52.984Z</time></trkpt><trkpt lat="39.79045529777655" lon="9.519578134113262"><ele>434.50000000000006</ele><time>2026-04-28T16:57:53.984Z</time></trkpt><trkpt lat="39.79049527867574" lon="9.519490234492736"><ele>439.0</ele><time>2026-04-28T16:57:54.984Z</time></trkpt><trkpt lat="39.79056041684173" lon="9.519405101168504"><ele>443.5</ele><time>2026-04-28T16:57:55.984Z</time></trkpt><trkpt lat="39.79063350717692" lon="9.51933128781063"><ele>448.0</ele><time>2026-04-28T16:57:56.984Z</time></trkpt><trkpt lat="39.790705169460985" lon="9.51926250609061"><ele>452.50000000000006</ele><time>2026-04-28T16:57:57.984Z</time></trkpt><trkpt lat="39.79077510160164" lon="9.519189502832694"><ele>457.0</ele><time>2026-04-28T16:57:58.985Z</time></trkpt><trkpt lat="39.79084471241028" lon="9.519117363558685"><ele>457.00000000000006</ele><time>2026-04-28T16:57:59.985Z</time></trkpt><trkpt lat="39.79091226716647" lon="9.519047354964973"><ele>457.0</ele><time>2026-04-28T16:58:00.985Z</time></trkpt><trkpt lat="39.79096421726742" lon="9.518993517902741"><ele>457.0</ele><time>2026-04-28T16:58:01.985Z</time></trkpt><trkpt lat="39.79103211804968" lon="9.518922532115061"><ele>457.0</ele><time>2026-04-28T16:58:03.984Z</time></trkpt><trkpt lat="39.79108338541751" lon="9.518869346114506"><ele>457.00000000000006</ele><time>2026-04-28T16:58:05.984Z</time></trkpt><trkpt lat="39.79111930647764" lon="9.518801447873107"><ele>457.0</ele><time>2026-04-28T16:58:12.984Z</time></trkpt><trkpt lat="39.791049271044656" lon="9.518855320024485"><ele>457.0</ele><time>2026-04-28T16:58:28.985Z</time></trkpt><trkpt lat="39.79100527302701" lon="9.518923094525354"><ele>457.00000000000006</ele><time>2026-04-28T16:58:32.985Z</time></trkpt><trkpt lat="39.790896012700955" lon="9.518977140767252"><ele>457.00000000000006</ele><time>2026-04-28T17:04:16.99Z</time></trkpt><trkpt lat="39.79083660297066" lon="9.519034149156623"><ele>457.0</ele><time>2026-04-28T17:04:18.99Z</time></trkpt><trkpt lat="39.790770977325444" lon="9.519137328146877"><ele>457.0</ele><time>2026-04-28T17:04:20.99Z</time></trkpt><trkpt lat="39.79068924222644" lon="9.519209609117093"><ele>457.0</ele><time>2026-04-28T17:04:22.99Z</time></trkpt><trkpt lat="39.79060783187465" lon="9.519296743963018"><ele>457.00000000000006</ele><time>2026-04-28T17:04:24.99Z</time></trkpt><trkpt lat="39.79052840665991" lon="9.519356830728704"><ele>457.00000000000006</ele><time>2026-04-28T17:04:26.99Z</time></trkpt><trkpt lat="39.790491433549754" lon="9.519489884600437"><ele>457.0</ele><time>2026-04-28T17:04:28.991Z</time></trkpt><trkpt lat="39.790408152436996" lon="9.519599158727708"><ele>457.0</ele><time>2026-04-28T17:04:30.99Z</time></trkpt><trkpt lat="39.790340280498576" lon="9.519621524077106"><ele>456.50000000000006</ele><time>2026-04-28T17:04:31.99Z</time></trkpt><trkpt lat="39.79026201847489" lon="9.519702719166892"><ele>456.0</ele><time>2026-04-28T17:04:33.99Z</time></trkpt><trkpt lat="39.790226131448684" lon="9.519806726814565"><ele>455.5</ele><time>2026-04-28T17:04:35.99Z</time></trkpt><trkpt lat="39.79017126863378" lon="9.519849653720494"><ele>455.0</ele><time>2026-04-28T17:04:39.99Z</time></trkpt><trkpt lat="39.79011221387478" lon="9.519895335631983"><ele>454.50000000000006</ele><time>2026-04-28T17:04:54.984Z</time></trkpt><trkpt lat="39.79007219657871" lon="9.519987758685547"><ele>454.0</ele><time>2026-04-28T17:04:58.982Z</time></trkpt><trkpt lat="39.7900564985463" lon="9.520087760973514"><ele>454.00000000000006</ele><time>2026-04-28T17:05:02.981Z</time></trkpt><trkpt lat="39.7900005495878" lon="9.520177389438558"><ele>454.0</ele><time>2026-04-28T17:05:05.98Z</time></trkpt><trkpt lat="39.789926379095476" lon="9.52025037172254"><ele>454.0</ele><time>2026-04-28T17:05:08.979Z</time></trkpt><trkpt lat="39.7898755441424" lon="9.520332418114132"><ele>454.0</ele><time>2026-04-28T17:05:10.979Z</time></trkpt><trkpt lat="39.789809934190984" lon="9.520406702195801"><ele>454.00000000000006</ele><time>2026-04-28T17:05:12.979Z</time></trkpt><trkpt lat="39.789751907185575" lon="9.520474219511284"><ele>454.0</ele><time>2026-04-28T17:05:14.979Z</time></trkpt><trkpt lat="39.78970257196022" lon="9.520533079568763"><ele>454.0</ele><time>2026-04-28T17:05:16.978Z</time></trkpt><trkpt lat="39.7896334657784" lon="9.520597652941388"><ele>454.0</ele><time>2026-04-28T17:05:19.978Z</time></trkpt><trkpt lat="39.78972636123949" lon="9.52052913169653"><ele>454.0</ele><time>2026-04-28T17:05:44.977Z</time></trkpt><trkpt lat="39.789806699850566" lon="9.52043918540284"><ele>454.0</ele><time>2026-04-28T17:05:46.977Z</time></trkpt><trkpt lat="39.78988331226362" lon="9.520372878931164"><ele>454.0</ele><time>2026-04-28T17:05:48.977Z</time></trkpt><trkpt lat="39.789941354623004" lon="9.520303216378924"><ele>454.00000000000006</ele><time>2026-04-28T17:05:50.977Z</time></trkpt><trkpt lat="39.78999246458686" lon="9.5202424444047"><ele>454.0</ele><time>2026-04-28T17:05:52.977Z</time></trkpt><trkpt lat="39.79006727126707" lon="9.520164162533849"><ele>454.0</ele><time>2026-04-28T17:06:49.996Z</time></trkpt><trkpt lat="39.79013490509561" lon="9.520229174118487"><ele>454.0</ele><time>2026-04-28T17:07:02.999Z</time></trkpt><trkpt lat="39.79014973915308" lon="9.520144134082013"><ele>454.00000000000006</ele><time>2026-04-28T17:07:48.002Z</time></trkpt><trkpt lat="39.79007791933519" lon="9.520112188684454"><ele>454.0</ele><time>2026-04-28T17:08:07.002Z</time></trkpt><trkpt lat="39.79012385039416" lon="9.52005447405596"><ele>454.0</ele><time>2026-04-28T17:09:09.001Z</time></trkpt><trkpt lat="39.79005892766593" lon="9.52001544123087"><ele>454.00000000000006</ele><time>2026-04-28T17:13:17Z</time></trkpt><trkpt lat="39.7901250186985" lon="9.520043546715463"><ele>454.0</ele><time>2026-04-28T17:13:37Z</time></trkpt><trkpt lat="39.79019618325799" lon="9.520050122033691"><ele>454.0</ele><time>2026-04-28T17:14:39.001Z</time></trkpt><trkpt lat="39.79014145311355" lon="9.520002041643858"><ele>454.00000000000006</ele><time>2026-04-28T17:18:51Z</time></trkpt><trkpt lat="39.79017954628399" lon="9.519931977523875"><ele>454.0</ele><time>2026-04-28T17:19:17Z</time></trkpt><trkpt lat="39.79017866664519" lon="9.519815798120076"><ele>454.0</ele><time>2026-04-28T17:19:30Z</time></trkpt><trkpt lat="39.790058060649194" lon="9.519780001701799"><ele>454.0</ele><time>2026-04-28T23:13:44.999Z</time></trkpt><trkpt lat="39.79017611301825" lon="9.519859194848774"><ele>430.0</ele><time>2026-04-28T23:39:13.142Z</time></trkpt><trkpt lat="39.79017627323676" lon="9.519751178010322"><ele>430.0</ele><time>2026-04-29T02:08:47.139Z</time></trkpt><trkpt lat="39.79012043903217" lon="9.519682628227999"><ele>454.0</ele><time>2026-04-29T02:12:02.142Z</time></trkpt><trkpt lat="39.79018030960624" lon="9.51986763589437"><ele>430.0</ele><time>2026-04-29T03:03:40.367Z</time></trkpt></trkseg><trkseg><trkpt lat="39.763591175584686" lon="9.505489958707784"><ele>747.4000000000001</ele><time>2026-04-29T06:12:58Z</time></trkpt><trkpt lat="39.76350705838939" lon="9.505400924930756"><ele>747.8000000000001</ele><time>2026-04-29T06:13:00Z</time></trkpt><trkpt lat="39.76342496948854" lon="9.505326553919053"><ele>748.2</ele><time>2026-04-29T06:13:02Z</time></trkpt><trkpt lat="39.76335517325332" lon="9.50525822400621"><ele>748.6</ele><time>2026-04-29T06:13:04Z</time></trkpt><trkpt lat="39.76327154249424" lon="9.50517676146631"><ele>749.0</ele><time>2026-04-29T06:13:06Z</time></trkpt><trkpt lat="39.7632222823248" lon="9.50512287570819"><ele>749.0</ele><time>2026-04-29T06:13:08Z</time></trkpt><trkpt lat="39.763156022865225" lon="9.505073793065023"><ele>749.0</ele><time>2026-04-29T06:13:11Z</time></trkpt><trkpt lat="39.763194866335475" lon="9.505168787685816"><ele>749.0</ele><time>2026-04-29T06:13:41.001Z</time></trkpt><trkpt lat="39.76325297909415" lon="9.505230973149128"><ele>749.0</ele><time>2026-04-29T06:13:44.001Z</time></trkpt><trkpt lat="39.76331710682948" lon="9.505221795846468"><ele>749.0</ele><time>2026-04-29T06:14:59.001Z</time></trkpt><trkpt lat="39.76325510355919" lon="9.505138740244032"><ele>749.0</ele><time>2026-04-29T06:15:02.001Z</time></trkpt><trkpt lat="39.76315960535678" lon="9.505060731894824"><ele>749.0</ele><time>2026-04-29T06:15:04.001Z</time></trkpt><trkpt lat="39.76310345452477" lon="9.50501220840563"><ele>749.0</ele><time>2026-04-29T06:15:05.001Z</time></trkpt><trkpt lat="39.763048662344765" lon="9.504954697581562"><ele>749.0</ele><time>2026-04-29T06:15:06.001Z</time></trkpt><trkpt lat="39.76298578464905" lon="9.504887956604035"><ele>749.0</ele><time>2026-04-29T06:15:07.001Z</time></trkpt><trkpt lat="39.76291888677175" lon="9.50482457831635"><ele>749.0</ele><time>2026-04-29T06:15:08.001Z</time></trkpt><trkpt lat="39.76284358087002" lon="9.504751085559302"><ele>749.0</ele><time>2026-04-29T06:15:09.001Z</time></trkpt><trkpt lat="39.762762767552985" lon="9.504673820158555"><ele>748.8000000000001</ele><time>2026-04-29T06:15:10.001Z</time></trkpt><trkpt lat="39.762680578746284" lon="9.50458517831031"><ele>748.6</ele><time>2026-04-29T06:15:11.001Z</time></trkpt><trkpt lat="39.762595227529346" lon="9.504510121606573"><ele>748.4</ele><time>2026-04-29T06:15:12.001Z</time></trkpt><trkpt lat="39.762515456631135" lon="9.50442667202818"><ele>748.2</ele><time>2026-04-29T06:15:13.001Z</time></trkpt><trkpt lat="39.76243558475994" lon="9.504344067206368"><ele>748.0</ele><time>2026-04-29T06:15:14.001Z</time></trkpt><trkpt lat="39.76234684100519" lon="9.5042719280758"><ele>749.5999999999999</ele><time>2026-04-29T06:15:15.001Z</time></trkpt><trkpt lat="39.762261152062116" lon="9.504185044147185"><ele>751.1999999999999</ele><time>2026-04-29T06:15:16.001Z</time></trkpt><trkpt lat="39.762177388183574" lon="9.504102980557613"><ele>752.8</ele><time>2026-04-29T06:15:17.001Z</time></trkpt><trkpt lat="39.76208670162375" lon="9.504019188481758"><ele>754.4</ele><time>2026-04-29T06:15:18.001Z</time></trkpt><trkpt lat="39.7619976254728" lon="9.503928819726289"><ele>756.0</ele><time>2026-04-29T06:15:19.001Z</time></trkpt><trkpt lat="39.76190059124319" lon="9.50385043396765"><ele>757.4</ele><time>2026-04-29T06:15:20.001Z</time></trkpt><trkpt lat="39.76182200094505" lon="9.503759770690943"><ele>758.8</ele><time>2026-04-29T06:15:21.001Z</time></trkpt><trkpt lat="39.761722409294045" lon="9.503674616753383"><ele>760.1999999999999</ele><time>2026-04-29T06:15:22.001Z</time></trkpt><trkpt lat="39.761642337918" lon="9.503585820055031"><ele>761.5999999999999</ele><time>2026-04-29T06:15:23.001Z</time></trkpt><trkpt lat="39.7615536780117" lon="9.503508418847696"><ele>763.0</ele><time>2026-04-29T06:15:24.001Z</time></trkpt><trkpt lat="39.76146845803707" lon="9.50342559228142"><ele>763.5999999999999</ele><time>2026-04-29T06:15:25.001Z</time></trkpt><trkpt lat="39.76138727127472" lon="9.503345995879297"><ele>764.1999999999999</ele><time>2026-04-29T06:15:26.001Z</time></trkpt><trkpt lat="39.76129933302067" lon="9.503268955915024"><ele>764.8</ele><time>2026-04-29T06:15:27.001Z</time></trkpt><trkpt lat="39.76122282927851" lon="9.503185596082254"><ele>765.4</ele><time>2026-04-29T06:15:28.001Z</time></trkpt><trkpt lat="39.761144627217774" lon="9.503100105539586"><ele>766.0</ele><time>2026-04-29T06:15:29.001Z</time></trkpt><trkpt lat="39.76108589322086" lon="9.50300678111301"><ele>770.0</ele><time>2026-04-29T06:15:30.001Z</time></trkpt><trkpt lat="39.76102724174695" lon="9.502898837426144"><ele>774.0</ele><time>2026-04-29T06:15:31.001Z</time></trkpt><trkpt lat="39.76097765370919" lon="9.502783537679534"><ele>778.0</ele><time>2026-04-29T06:15:32.001Z</time></trkpt><trkpt lat="39.76093290191808" lon="9.502665370710861"><ele>782.0</ele><time>2026-04-29T06:15:33.001Z</time></trkpt><trkpt lat="39.76089969975803" lon="9.502546435205705"><ele>786.0</ele><time>2026-04-29T06:15:34.001Z</time></trkpt><trkpt lat="39.760857498173024" lon="9.502433162621001"><ele>786.0</ele><time>2026-04-29T06:15:35.001Z</time></trkpt><trkpt lat="39.76082864829883" lon="9.50232150287555"><ele>786.0</ele><time>2026-04-29T06:15:36.001Z</time></trkpt><trkpt lat="39.76079075542515" lon="9.502207081820554"><ele>786.0</ele><time>2026-04-29T06:15:37.001Z</time></trkpt><trkpt lat="39.76076037457774" lon="9.502091605350392"><ele>786.0</ele><time>2026-04-29T06:15:38.001Z</time></trkpt><trkpt lat="39.7607242205383" lon="9.501976398104075"><ele>786.0</ele><time>2026-04-29T06:15:39.001Z</time></trkpt><trkpt lat="39.7606858421469" lon="9.50185527345253"><ele>787.0</ele><time>2026-04-29T06:15:40.001Z</time></trkpt><trkpt lat="39.760651346229494" lon="9.501734153181758"><ele>788.0</ele><time>2026-04-29T06:15:41.001Z</time></trkpt><trkpt lat="39.760619043342885" lon="9.501611959336403"><ele>789.0</ele><time>2026-04-29T06:15:42.001Z</time></trkpt><trkpt lat="39.760587586358106" lon="9.501489078108019"><ele>790.0</ele><time>2026-04-29T06:15:43.001Z</time></trkpt><trkpt lat="39.76056511422367" lon="9.501370453508416"><ele>791.0</ele><time>2026-04-29T06:15:44.001Z</time></trkpt><trkpt lat="39.760563811936315" lon="9.50125020061527"><ele>792.1999999999999</ele><time>2026-04-29T06:15:45.001Z</time></trkpt><trkpt lat="39.760584912780715" lon="9.501133916864696"><ele>793.4</ele><time>2026-04-29T06:15:46.001Z</time></trkpt><trkpt lat="39.76062679650147" lon="9.50102940035365"><ele>794.6</ele><time>2026-04-29T06:15:47.001Z</time></trkpt><trkpt lat="39.76067680925501" lon="9.500921194246063"><ele>795.8</ele><time>2026-04-29T06:15:48.001Z</time></trkpt><trkpt lat="39.76073232872704" lon="9.500816681718378"><ele>797.0</ele><time>2026-04-29T06:15:49.001Z</time></trkpt><trkpt lat="39.76079218781638" lon="9.500713231478912"><ele>797.0</ele><time>2026-04-29T06:15:50.001Z</time></trkpt><trkpt lat="39.76085326284273" lon="9.500605555935854"><ele>797.0</ele><time>2026-04-29T06:15:51.001Z</time></trkpt><trkpt lat="39.76091640591288" lon="9.500493467209967"><ele>797.0</ele><time>2026-04-29T06:15:52.001Z</time></trkpt><trkpt lat="39.76098218494185" lon="9.500375466345252"><ele>797.0</ele><time>2026-04-29T06:15:53.001Z</time></trkpt><trkpt lat="39.76104664631672" lon="9.500264153660545"><ele>797.0</ele><time>2026-04-29T06:15:54.001Z</time></trkpt><trkpt lat="39.76111012732141" lon="9.50015222930881"><ele>797.4000000000001</ele><time>2026-04-29T06:15:55.001Z</time></trkpt><trkpt lat="39.76117169661826" lon="9.500038447702165"><ele>797.8000000000001</ele><time>2026-04-29T06:15:56.001Z</time></trkpt><trkpt lat="39.76123259397122" lon="9.4999247673524"><ele>798.2</ele><time>2026-04-29T06:15:57.001Z</time></trkpt><trkpt lat="39.76129608750941" lon="9.499812323701583"><ele>798.6</ele><time>2026-04-29T06:15:58.001Z</time></trkpt><trkpt lat="39.76135837786401" lon="9.499691918589141"><ele>799.0</ele><time>2026-04-29T06:15:59.001Z</time></trkpt><trkpt lat="39.761424062129635" lon="9.499576509249232"><ele>799.0</ele><time>2026-04-29T06:16:00.001Z</time></trkpt><trkpt lat="39.76148861542981" lon="9.499460525901931"><ele>799.0</ele><time>2026-04-29T06:16:01.001Z</time></trkpt><trkpt lat="39.76155457437824" lon="9.4993494259935"><ele>799.0</ele><time>2026-04-29T06:16:02.001Z</time></trkpt><trkpt lat="39.76161546057123" lon="9.499242573273678"><ele>799.0</ele><time>2026-04-29T06:16:03.001Z</time></trkpt><trkpt lat="39.76167348669109" lon="9.499144608236431"><ele>799.0</ele><time>2026-04-29T06:16:04.001Z</time></trkpt><trkpt lat="39.76172505411615" lon="9.49905062459708"><ele>799.0</ele><time>2026-04-29T06:16:05.001Z</time></trkpt><trkpt lat="39.761771432129855" lon="9.498957909723803"><ele>799.0</ele><time>2026-04-29T06:16:06.001Z</time></trkpt><trkpt lat="39.761812453469894" lon="9.49886044165165"><ele>799.0</ele><time>2026-04-29T06:16:07.001Z</time></trkpt><trkpt lat="39.76184761983527" lon="9.498753781914338"><ele>799.0</ele><time>2026-04-29T06:16:08.001Z</time></trkpt><trkpt lat="39.76187809106307" lon="9.49863694273329"><ele>799.0</ele><time>2026-04-29T06:16:09.001Z</time></trkpt><trkpt lat="39.76190489981961" lon="9.498513519394876"><ele>802.2</ele><time>2026-04-29T06:16:10.001Z</time></trkpt><trkpt lat="39.76192334777617" lon="9.498377953266964"><ele>805.4000000000001</ele><time>2026-04-29T06:16:11.001Z</time></trkpt><trkpt lat="39.76193741207771" lon="9.49823584021392"><ele>808.6</ele><time>2026-04-29T06:16:12.001Z</time></trkpt><trkpt lat="39.761952840421145" lon="9.498108184767936"><ele>811.8</ele><time>2026-04-29T06:16:13.001Z</time></trkpt><trkpt lat="39.76196551507993" lon="9.498005438799135"><ele>815.0</ele><time>2026-04-29T06:16:14.001Z</time></trkpt><trkpt lat="39.76197198737351" lon="9.497922601524223"><ele>815.8</ele><time>2026-04-29T06:16:15.001Z</time></trkpt><trkpt lat="39.76197665451802" lon="9.497801192302065"><ele>816.6</ele><time>2026-04-29T06:16:17.001Z</time></trkpt><trkpt lat="39.76198081809013" lon="9.497699781179767"><ele>817.4000000000001</ele><time>2026-04-29T06:16:19.001Z</time></trkpt><trkpt lat="39.761986487955795" lon="9.497602805666851"><ele>818.2</ele><time>2026-04-29T06:16:21.001Z</time></trkpt><trkpt lat="39.76199019320403" lon="9.497420837331182"><ele>819.0</ele><time>2026-04-29T06:16:23.001Z</time></trkpt><trkpt lat="39.76199649277327" lon="9.497296747800279"><ele>819.0</ele><time>2026-04-29T06:16:24.001Z</time></trkpt><trkpt lat="39.762006900110926" lon="9.497169230348602"><ele>819.0</ele><time>2026-04-29T06:16:25.001Z</time></trkpt><trkpt lat="39.76201499669988" lon="9.497045143434198"><ele>819.0</ele><time>2026-04-29T06:16:26.001Z</time></trkpt><trkpt lat="39.76202243986079" lon="9.496926427396094"><ele>819.0</ele><time>2026-04-29T06:16:27.001Z</time></trkpt><trkpt lat="39.76203107665629" lon="9.496824303221615"><ele>819.0</ele><time>2026-04-29T06:16:28.001Z</time></trkpt><trkpt lat="39.76204345317371" lon="9.49670483763628"><ele>818.3333333333334</ele><time>2026-04-29T06:16:30.001Z</time></trkpt><trkpt lat="39.762069989938794" lon="9.496613124225053"><ele>817.6666666666667</ele><time>2026-04-29T06:21:02.002Z</time></trkpt><trkpt lat="39.76204469781399" lon="9.496504010759994"><ele>817.0</ele><time>2026-04-29T06:21:05.002Z</time></trkpt><trkpt lat="39.76203894021828" lon="9.496365511348237"><ele>816.3333333333334</ele><time>2026-04-29T06:21:07.002Z</time></trkpt><trkpt lat="39.76204541101969" lon="9.496282481210047"><ele>815.6666666666667</ele><time>2026-04-29T06:21:08.002Z</time></trkpt><trkpt lat="39.762060171594584" lon="9.496201536770002"><ele>815.0</ele><time>2026-04-29T06:21:09.002Z</time></trkpt><trkpt lat="39.762067520425006" lon="9.496094953974488"><ele>815.0</ele><time>2026-04-29T06:21:10.002Z</time></trkpt><trkpt lat="39.76207499081558" lon="9.495983137068352"><ele>815.0</ele><time>2026-04-29T06:21:11.002Z</time></trkpt><trkpt lat="39.762069891339564" lon="9.495865097628153"><ele>815.0</ele><time>2026-04-29T06:21:12.002Z</time></trkpt><trkpt lat="39.76205009583744" lon="9.495733344646768"><ele>815.0</ele><time>2026-04-29T06:21:13.002Z</time></trkpt><trkpt lat="39.76202344596419" lon="9.495597383939934"><ele>815.0</ele><time>2026-04-29T06:21:14.002Z</time></trkpt><trkpt lat="39.761991706580666" lon="9.495459867395633"><ele>818.5</ele><time>2026-04-29T06:21:15.003Z</time></trkpt><trkpt lat="39.76195383091588" lon="9.49532510980465"><ele>822.0</ele><time>2026-04-29T06:21:16.003Z</time></trkpt><trkpt lat="39.7619138103475" lon="9.49517837664234"><ele>825.5</ele><time>2026-04-29T06:21:17.003Z</time></trkpt><trkpt lat="39.76187445382337" lon="9.495031778309732"><ele>829.0</ele><time>2026-04-29T06:21:18.003Z</time></trkpt><trkpt lat="39.761837433312756" lon="9.494887135158018"><ele>823.6</ele><time>2026-04-29T06:21:19.003Z</time></trkpt><trkpt lat="39.76180755892485" lon="9.494745425803009"><ele>818.2</ele><time>2026-04-29T06:21:20.003Z</time></trkpt><trkpt lat="39.76178344309488" lon="9.494603036430716"><ele>812.8000000000001</ele><time>2026-04-29T06:21:21.003Z</time></trkpt><trkpt lat="39.76176397975542" lon="9.494464695269794"><ele>807.4000000000001</ele><time>2026-04-29T06:21:22.003Z</time></trkpt><trkpt lat="39.76175627562388" lon="9.494341497269609"><ele>802.0</ele><time>2026-04-29T06:21:23.003Z</time></trkpt><trkpt lat="39.76175110327254" lon="9.494224258726385"><ele>801.9999999999999</ele><time>2026-04-29T06:21:24.003Z</time></trkpt><trkpt lat="39.76174661873814" lon="9.494111323518215"><ele>802.0</ele><time>2026-04-29T06:21:25.003Z</time></trkpt><trkpt lat="39.76174711100753" lon="9.493996479551527"><ele>802.0</ele><time>2026-04-29T06:21:26.003Z</time></trkpt><trkpt lat="39.761752225346086" lon="9.493907767349931"><ele>802.0</ele><time>2026-04-29T06:21:27.003Z</time></trkpt><trkpt lat="39.76177381928499" lon="9.493820041711995"><ele>801.9999999999999</ele><time>2026-04-29T06:21:30.003Z</time></trkpt><trkpt lat="39.761784246529444" lon="9.493707163058046"><ele>802.0</ele><time>2026-04-29T06:23:50.003Z</time></trkpt><trkpt lat="39.76182007446141" lon="9.493578346558355"><ele>805.3333333333333</ele><time>2026-04-29T06:23:52.003Z</time></trkpt><trkpt lat="39.761890851954924" lon="9.493440872471929"><ele>808.6666666666666</ele><time>2026-04-29T06:23:54.003Z</time></trkpt><trkpt lat="39.761935121580684" lon="9.493371369798249"><ele>812.0</ele><time>2026-04-29T06:23:55.003Z</time></trkpt><trkpt lat="39.76197592605179" lon="9.493294067097127"><ele>815.3333333333333</ele><time>2026-04-29T06:23:56.003Z</time></trkpt><trkpt lat="39.762015400483314" lon="9.49321747863383"><ele>818.6666666666666</ele><time>2026-04-29T06:23:57.003Z</time></trkpt><trkpt lat="39.762053112625296" lon="9.493144285192459"><ele>822.0</ele><time>2026-04-29T06:23:58.003Z</time></trkpt><trkpt lat="39.76207863875904" lon="9.493065041438095"><ele>822.0</ele><time>2026-04-29T06:23:59.003Z</time></trkpt><trkpt lat="39.76208833531984" lon="9.492980907073312"><ele>822.0</ele><time>2026-04-29T06:24:00.003Z</time></trkpt><trkpt lat="39.76204815476529" lon="9.492823526165523"><ele>822.0</ele><time>2026-04-29T06:24:02.003Z</time></trkpt><trkpt lat="39.76200559009602" lon="9.492759056004196"><ele>822.0</ele><time>2026-04-29T06:24:03.003Z</time></trkpt><trkpt lat="39.76188913720837" lon="9.492698839629542"><ele>822.0</ele><time>2026-04-29T06:24:05.003Z</time></trkpt><trkpt lat="39.761819764743464" lon="9.492701576584926"><ele>820.8333333333334</ele><time>2026-04-29T06:24:06.003Z</time></trkpt><trkpt lat="39.761746001372714" lon="9.492726233762061"><ele>819.6666666666667</ele><time>2026-04-29T06:24:07.003Z</time></trkpt><trkpt lat="39.76167534479095" lon="9.492774425903567"><ele>818.5</ele><time>2026-04-29T06:24:08.003Z</time></trkpt><trkpt lat="39.761604750464954" lon="9.49284018325883"><ele>817.3333333333334</ele><time>2026-04-29T06:24:09.003Z</time></trkpt><trkpt lat="39.76153493269708" lon="9.492919173295665"><ele>816.1666666666667</ele><time>2026-04-29T06:24:10.003Z</time></trkpt><trkpt lat="39.761464364929765" lon="9.49300082198113"><ele>815.0</ele><time>2026-04-29T06:24:11.003Z</time></trkpt><trkpt lat="39.76138872194561" lon="9.493096382847298"><ele>812.0</ele><time>2026-04-29T06:24:12.003Z</time></trkpt><trkpt lat="39.76131001712635" lon="9.493194916356288"><ele>809.0</ele><time>2026-04-29T06:24:13.003Z</time></trkpt><trkpt lat="39.76122725359526" lon="9.493293088364213"><ele>806.0</ele><time>2026-04-29T06:24:14.003Z</time></trkpt><trkpt lat="39.76114379809549" lon="9.493397811410553"><ele>803.0</ele><time>2026-04-29T06:24:15.003Z</time></trkpt><trkpt lat="39.76106099449705" lon="9.49349755830852"><ele>804.0</ele><time>2026-04-29T06:24:16.003Z</time></trkpt><trkpt lat="39.76097992469326" lon="9.493595965751538"><ele>805.0</ele><time>2026-04-29T06:24:17.003Z</time></trkpt><trkpt lat="39.76089575730993" lon="9.493697295075508"><ele>806.0</ele><time>2026-04-29T06:24:18.003Z</time></trkpt><trkpt lat="39.76081131082938" lon="9.493800073620912"><ele>807.0</ele><time>2026-04-29T06:24:19.003Z</time></trkpt><trkpt lat="39.76072566968451" lon="9.49390623364885"><ele>807.0</ele><time>2026-04-29T06:24:20.003Z</time></trkpt><trkpt lat="39.760641808941116" lon="9.494006713319585"><ele>807.0</ele><time>2026-04-29T06:24:21.003Z</time></trkpt><trkpt lat="39.760555509340186" lon="9.494107500165002"><ele>807.0</ele><time>2026-04-29T06:24:22.003Z</time></trkpt><trkpt lat="39.760469996627776" lon="9.494203357188544"><ele>807.0</ele><time>2026-04-29T06:24:23.003Z</time></trkpt><trkpt lat="39.76038043949747" lon="9.494294105024988"><ele>807.0</ele><time>2026-04-29T06:24:24.003Z</time></trkpt><trkpt lat="39.76028466482786" lon="9.494378679026193"><ele>807.0</ele><time>2026-04-29T06:24:25.003Z</time></trkpt><trkpt lat="39.760186119876444" lon="9.4944610739574"><ele>807.0</ele><time>2026-04-29T06:24:26.003Z</time></trkpt><trkpt lat="39.760086252468355" lon="9.494542154702282"><ele>807.0</ele><time>2026-04-29T06:24:27.003Z</time></trkpt><trkpt lat="39.75998464299915" lon="9.494619569825856"><ele>808.0</ele><time>2026-04-29T06:24:28.003Z</time></trkpt><trkpt lat="39.7598942961193" lon="9.494683698343312"><ele>809.0</ele><time>2026-04-29T06:24:29.003Z</time></trkpt><trkpt lat="39.75980819147383" lon="9.494728651884222"><ele>810.0</ele><time>2026-04-29T06:24:30.003Z</time></trkpt><trkpt lat="39.759728825634554" lon="9.494755399635109"><ele>811.0</ele><time>2026-04-29T06:24:31.003Z</time></trkpt><trkpt lat="39.7596438536197" lon="9.494765975901846"><ele>812.0</ele><time>2026-04-29T06:24:32.003Z</time></trkpt><trkpt lat="39.759558264699805" lon="9.494750661743245"><ele>813.0</ele><time>2026-04-29T06:24:33.003Z</time></trkpt><trkpt lat="39.75946873528898" lon="9.494717557348773"><ele>813.0</ele><time>2026-04-29T06:24:34.003Z</time></trkpt><trkpt lat="39.75938405836079" lon="9.49465890895272"><ele>813.0</ele><time>2026-04-29T06:24:35.003Z</time></trkpt><trkpt lat="39.75929668137895" lon="9.494579625240503"><ele>813.0</ele><time>2026-04-29T06:24:36.003Z</time></trkpt><trkpt lat="39.75920189798259" lon="9.494481917709724"><ele>813.0</ele><time>2026-04-29T06:24:37.003Z</time></trkpt><trkpt lat="39.759107539623365" lon="9.494383618487296"><ele>813.0</ele><time>2026-04-29T06:24:38.003Z</time></trkpt><trkpt lat="39.759021186198616" lon="9.494294027940192"><ele>817.0</ele><time>2026-04-29T06:24:39.003Z</time></trkpt><trkpt lat="39.758936045150605" lon="9.494218204036462"><ele>821.0</ele><time>2026-04-29T06:24:40.003Z</time></trkpt><trkpt lat="39.758859123203" lon="9.494143553375185"><ele>825.0</ele><time>2026-04-29T06:24:41.003Z</time></trkpt><trkpt lat="39.75876651203488" lon="9.494121342713903"><ele>829.0</ele><time>2026-04-29T06:24:42.003Z</time></trkpt><trkpt lat="39.75867431590659" lon="9.494123431357668"><ele>833.0</ele><time>2026-04-29T06:24:43.003Z</time></trkpt><trkpt lat="39.75857765310932" lon="9.494154456073476"><ele>834.25</ele><time>2026-04-29T06:24:44.003Z</time></trkpt><trkpt lat="39.75848480285792" lon="9.494207846452916"><ele>835.5</ele><time>2026-04-29T06:24:45.003Z</time></trkpt><trkpt lat="39.75839099144269" lon="9.494288771733386"><ele>836.75</ele><time>2026-04-29T06:24:46.003Z</time></trkpt><trkpt lat="39.75830117537636" lon="9.494384391335071"><ele>838.0</ele><time>2026-04-29T06:24:47.003Z</time></trkpt><trkpt lat="39.758206483178114" lon="9.494496707311734"><ele>835.75</ele><time>2026-04-29T06:24:48.003Z</time></trkpt><trkpt lat="39.75810061936606" lon="9.494610844273756"><ele>833.5</ele><time>2026-04-29T06:24:49.003Z</time></trkpt><trkpt lat="39.757996697821206" lon="9.494719619369267"><ele>831.25</ele><time>2026-04-29T06:24:50.003Z</time></trkpt><trkpt lat="39.75788938828762" lon="9.494834432476933"><ele>829.0</ele><time>2026-04-29T06:24:51.003Z</time></trkpt><trkpt lat="39.75778475177457" lon="9.494950380131176"><ele>833.0</ele><time>2026-04-29T06:24:52.003Z</time></trkpt><trkpt lat="39.75767921631913" lon="9.495066665899001"><ele>837.0</ele><time>2026-04-29T06:24:53.003Z</time></trkpt><trkpt lat="39.757572454516605" lon="9.495183574581613"><ele>841.0</ele><time>2026-04-29T06:24:54.003Z</time></trkpt><trkpt lat="39.75746388825666" lon="9.495299871634518"><ele>845.0</ele><time>2026-04-29T06:24:55.003Z</time></trkpt><trkpt lat="39.757351533012766" lon="9.495408239709924"><ele>843.0</ele><time>2026-04-29T06:24:56.003Z</time></trkpt><trkpt lat="39.75723879679835" lon="9.495501942262184"><ele>841.0</ele><time>2026-04-29T06:24:57.003Z</time></trkpt><trkpt lat="39.75712493336487" lon="9.495567134819302"><ele>839.0</ele><time>2026-04-29T06:24:58.003Z</time></trkpt><trkpt lat="39.757008326546845" lon="9.495615650842822"><ele>837.0</ele><time>2026-04-29T06:24:59.003Z</time></trkpt><trkpt lat="39.75688676398832" lon="9.495644136240825"><ele>839.5</ele><time>2026-04-29T06:25:00.003Z</time></trkpt><trkpt lat="39.75676530545651" lon="9.495649972604213"><ele>842.0</ele><time>2026-04-29T06:25:01.003Z</time></trkpt><trkpt lat="39.75663690711648" lon="9.495636228820223"><ele>844.5</ele><time>2026-04-29T06:25:02.003Z</time></trkpt><trkpt lat="39.756505702608976" lon="9.495603908556653"><ele>847.0</ele><time>2026-04-29T06:25:03.003Z</time></trkpt><trkpt lat="39.756381432956765" lon="9.495568818368637"><ele>847.0</ele><time>2026-04-29T06:25:04.003Z</time></trkpt><trkpt lat="39.75626526897252" lon="9.495535547948787"><ele>847.0</ele><time>2026-04-29T06:25:05.003Z</time></trkpt><trkpt lat="39.75615758673497" lon="9.495508694289983"><ele>847.0</ele><time>2026-04-29T06:25:06.003Z</time></trkpt><trkpt lat="39.75606628898813" lon="9.495485784840314"><ele>847.0</ele><time>2026-04-29T06:25:07.003Z</time></trkpt><trkpt lat="39.755976470367216" lon="9.495450761839509"><ele>847.0</ele><time>2026-04-29T06:25:09.003Z</time></trkpt><trkpt lat="39.75600932190916" lon="9.495307993231"><ele>847.4999999999999</ele><time>2026-04-29T06:25:22.004Z</time></trkpt><trkpt lat="39.756054679813076" lon="9.49518535504586"><ele>848.0</ele><time>2026-04-29T06:25:24.004Z</time></trkpt><trkpt lat="39.75608514480033" lon="9.495107986328083"><ele>848.5</ele><time>2026-04-29T06:25:25.004Z</time></trkpt><trkpt lat="39.756103749612635" lon="9.495015390601768"><ele>849.0</ele><time>2026-04-29T06:25:26.004Z</time></trkpt><trkpt lat="39.7561407130716" lon="9.494938067615765"><ele>849.4999999999999</ele><time>2026-04-29T06:25:27.004Z</time></trkpt><trkpt lat="39.75618010644498" lon="9.494856074719126"><ele>850.0</ele><time>2026-04-29T06:25:28.004Z</time></trkpt><trkpt lat="39.75621593329937" lon="9.494770807910854"><ele>849.9999999999999</ele><time>2026-04-29T06:25:29.004Z</time></trkpt><trkpt lat="39.756253413639634" lon="9.494682590746732"><ele>850.0</ele><time>2026-04-29T06:25:30.004Z</time></trkpt><trkpt lat="39.7563062643325" lon="9.494611755672894"><ele>850.0</ele><time>2026-04-29T06:25:31.004Z</time></trkpt><trkpt lat="39.756341544366215" lon="9.494516133400206"><ele>850.0</ele><time>2026-04-29T06:25:32.004Z</time></trkpt><trkpt lat="39.7563957837305" lon="9.494434180694693"><ele>849.9999999999999</ele><time>2026-04-29T06:25:33.004Z</time></trkpt><trkpt lat="39.75645870262151" lon="9.494353536989271"><ele>850.0</ele><time>2026-04-29T06:25:34.004Z</time></trkpt><trkpt lat="39.75651187984323" lon="9.494264045916186"><ele>850.3333333333333</ele><time>2026-04-29T06:25:35.004Z</time></trkpt><trkpt lat="39.756567961264345" lon="9.49416496049846"><ele>850.6666666666666</ele><time>2026-04-29T06:25:36.004Z</time></trkpt><trkpt lat="39.75661003096661" lon="9.494066383130205"><ele>851.0</ele><time>2026-04-29T06:25:37.004Z</time></trkpt><trkpt lat="39.756653599597236" lon="9.493960014382516"><ele>851.3333333333333</ele><time>2026-04-29T06:25:38.004Z</time></trkpt><trkpt lat="39.75669333572193" lon="9.493857015821666"><ele>851.6666666666666</ele><time>2026-04-29T06:25:39.004Z</time></trkpt><trkpt lat="39.756726888604824" lon="9.493778911859"><ele>852.0</ele><time>2026-04-29T06:25:40.004Z</time></trkpt><trkpt lat="39.75676651638626" lon="9.493689338615752"><ele>852.4000000000001</ele><time>2026-04-29T06:25:42.004Z</time></trkpt><trkpt lat="39.756812666268665" lon="9.493584588210737"><ele>852.8000000000001</ele><time>2026-04-29T06:25:56.004Z</time></trkpt><trkpt lat="39.75685257516115" lon="9.493464753434639"><ele>853.2</ele><time>2026-04-29T06:25:58.004Z</time></trkpt><trkpt lat="39.75688876984852" lon="9.493329038685792"><ele>853.6</ele><time>2026-04-29T06:26:00.004Z</time></trkpt><trkpt lat="39.756913668013794" lon="9.493247035209896"><ele>854.0</ele><time>2026-04-29T06:26:01.004Z</time></trkpt><trkpt lat="39.75695555441522" lon="9.493090113514091"><ele>854.0000000000001</ele><time>2026-04-29T06:26:03.004Z</time></trkpt><trkpt lat="39.7569855222348" lon="9.493014201300925"><ele>854.0</ele><time>2026-04-29T06:26:04.004Z</time></trkpt><trkpt lat="39.757031470591365" lon="9.492952807529193"><ele>854.0</ele><time>2026-04-29T06:26:05.004Z</time></trkpt><trkpt lat="39.75708737156988" lon="9.49289911031045"><ele>854.0</ele><time>2026-04-29T06:26:06.004Z</time></trkpt><trkpt lat="39.75714408930218" lon="9.492838197703382"><ele>854.0000000000001</ele><time>2026-04-29T06:26:07.004Z</time></trkpt><trkpt lat="39.75721374679376" lon="9.492767073449063"><ele>854.0</ele><time>2026-04-29T06:26:08.004Z</time></trkpt><trkpt lat="39.75728351671946" lon="9.492688548096478"><ele>854.0</ele><time>2026-04-29T06:26:09.004Z</time></trkpt><trkpt lat="39.75735306501867" lon="9.492594249828608"><ele>854.0000000000001</ele><time>2026-04-29T06:26:10.004Z</time></trkpt><trkpt lat="39.757415579650335" lon="9.492490956500514"><ele>854.0000000000001</ele><time>2026-04-29T06:26:11.004Z</time></trkpt><trkpt lat="39.75746980114857" lon="9.492397275807539"><ele>854.0</ele><time>2026-04-29T06:26:12.004Z</time></trkpt><trkpt lat="39.75753146814389" lon="9.49230711121097"><ele>854.0</ele><time>2026-04-29T06:26:13.004Z</time></trkpt><trkpt lat="39.75760028247489" lon="9.492216132845014"><ele>854.0</ele><time>2026-04-29T06:26:14.004Z</time></trkpt><trkpt lat="39.757670356318364" lon="9.492132151896008"><ele>854.0000000000001</ele><time>2026-04-29T06:26:15.004Z</time></trkpt><trkpt lat="39.757734503715554" lon="9.492054756626326"><ele>854.0000000000001</ele><time>2026-04-29T06:26:16.004Z</time></trkpt><trkpt lat="39.757820148233264" lon="9.492000073352159"><ele>854.0</ele><time>2026-04-29T06:26:17.004Z</time></trkpt><trkpt lat="39.75790363979368" lon="9.491917693525474"><ele>854.0</ele><time>2026-04-29T06:26:18.004Z</time></trkpt><trkpt lat="39.757997838491406" lon="9.491856394652434"><ele>853.6</ele><time>2026-04-29T06:26:19.004Z</time></trkpt><trkpt lat="39.75809641212909" lon="9.491790382375985"><ele>853.2</ele><time>2026-04-29T06:26:20.004Z</time></trkpt><trkpt lat="39.75818978653309" lon="9.491724149217966"><ele>852.8000000000001</ele><time>2026-04-29T06:26:21.004Z</time></trkpt><trkpt lat="39.758277200525235" lon="9.491656812140715"><ele>852.4000000000001</ele><time>2026-04-29T06:26:22.004Z</time></trkpt><trkpt lat="39.758360756697414" lon="9.491597185546704"><ele>852.0</ele><time>2026-04-29T06:26:23.004Z</time></trkpt><trkpt lat="39.758444269354285" lon="9.491535477395585"><ele>852.0</ele><time>2026-04-29T06:26:24.004Z</time></trkpt><trkpt lat="39.7585143219061" lon="9.49146748573545"><ele>852.0</ele><time>2026-04-29T06:26:25.004Z</time></trkpt><trkpt lat="39.75858557185581" lon="9.491386559464818"><ele>852.0</ele><time>2026-04-29T06:26:26.004Z</time></trkpt><trkpt lat="39.758654882481586" lon="9.491293260246032"><ele>852.0</ele><time>2026-04-29T06:26:27.004Z</time></trkpt><trkpt lat="39.75872441464488" lon="9.491189494820624"><ele>852.0</ele><time>2026-04-29T06:26:28.004Z</time></trkpt><trkpt lat="39.75879465490317" lon="9.49107232952302"><ele>851.5</ele><time>2026-04-29T06:26:29.004Z</time></trkpt><trkpt lat="39.75885973263306" lon="9.490952218092323"><ele>851.0</ele><time>2026-04-29T06:26:30.004Z</time></trkpt><trkpt lat="39.758919595371715" lon="9.490823628667016"><ele>850.5</ele><time>2026-04-29T06:26:31.004Z</time></trkpt><trkpt lat="39.75897345433497" lon="9.490685066536548"><ele>850.0</ele><time>2026-04-29T06:26:32.004Z</time></trkpt><trkpt lat="39.75902539709866" lon="9.490540311279167"><ele>848.75</ele><time>2026-04-29T06:26:33.004Z</time></trkpt><trkpt lat="39.759077194960774" lon="9.490395962023548"><ele>847.5</ele><time>2026-04-29T06:26:34.004Z</time></trkpt><trkpt lat="39.75913593447584" lon="9.490262415754435"><ele>846.25</ele><time>2026-04-29T06:26:35.004Z</time></trkpt><trkpt lat="39.75919385652442" lon="9.490130702171678"><ele>845.0</ele><time>2026-04-29T06:26:36.004Z</time></trkpt><trkpt lat="39.7592515370331" lon="9.49001475587722"><ele>845.0000000000001</ele><time>2026-04-29T06:26:37.004Z</time></trkpt><trkpt lat="39.759305355889396" lon="9.48991828423146"><ele>845.0</ele><time>2026-04-29T06:26:38.004Z</time></trkpt><trkpt lat="39.759360856603685" lon="9.489833031903762"><ele>845.0</ele><time>2026-04-29T06:26:39.004Z</time></trkpt><trkpt lat="39.75941598700131" lon="9.489755580473767"><ele>845.0</ele><time>2026-04-29T06:26:40.004Z</time></trkpt><trkpt lat="39.759465619854105" lon="9.48968866520038"><ele>845.0000000000001</ele><time>2026-04-29T06:26:41.004Z</time></trkpt><trkpt lat="39.7595515325202" lon="9.489585313971325"><ele>845.0</ele><time>2026-04-29T06:26:43.004Z</time></trkpt><trkpt lat="39.75962530080928" lon="9.489502939404815"><ele>845.6</ele><time>2026-04-29T06:26:45.004Z</time></trkpt><trkpt lat="39.75969740989232" lon="9.489421392352458"><ele>846.2</ele><time>2026-04-29T06:26:47.004Z</time></trkpt><trkpt lat="39.75976874840677" lon="9.489326709714923"><ele>846.8</ele><time>2026-04-29T06:26:49.004Z</time></trkpt><trkpt lat="39.75983577418164" lon="9.48921067659189"><ele>847.4</ele><time>2026-04-29T06:26:51.004Z</time></trkpt><trkpt lat="39.75986197024188" lon="9.48906340760995"><ele>848.0</ele><time>2026-04-29T06:26:53.004Z</time></trkpt><trkpt lat="39.75982937116718" lon="9.488985384746195"><ele>848.0000000000001</ele><time>2026-04-29T06:26:54.004Z</time></trkpt><trkpt lat="39.75980142546534" lon="9.488906222491423"><ele>848.0</ele><time>2026-04-29T06:26:55.004Z</time></trkpt><trkpt lat="39.75976006205134" lon="9.488818868002959"><ele>848.0</ele><time>2026-04-29T06:26:56.004Z</time></trkpt><trkpt lat="39.759719350050226" lon="9.488738779338341"><ele>848.0</ele><time>2026-04-29T06:26:57.004Z</time></trkpt><trkpt lat="39.759676960348656" lon="9.488648213708398"><ele>848.0000000000001</ele><time>2026-04-29T06:26:58.004Z</time></trkpt><trkpt lat="39.759643918465784" lon="9.488541686566652"><ele>848.0</ele><time>2026-04-29T06:26:59.004Z</time></trkpt><trkpt lat="39.75960957744828" lon="9.488432929301963"><ele>848.5000000000001</ele><time>2026-04-29T06:27:00.004Z</time></trkpt><trkpt lat="39.759563107058895" lon="9.488339117500573"><ele>849.0</ele><time>2026-04-29T06:27:01.004Z</time></trkpt><trkpt lat="39.759507830594984" lon="9.48825572175272"><ele>849.5</ele><time>2026-04-29T06:27:02.004Z</time></trkpt><trkpt lat="39.759458372704536" lon="9.488165445693376"><ele>850.0</ele><time>2026-04-29T06:27:03.004Z</time></trkpt><trkpt lat="39.759422524786004" lon="9.488059481570772"><ele>850.5000000000001</ele><time>2026-04-29T06:27:04.004Z</time></trkpt><trkpt lat="39.759393817120326" lon="9.487943119419441"><ele>851.0</ele><time>2026-04-29T06:27:05.004Z</time></trkpt><trkpt lat="39.75936869610813" lon="9.487817863529786"><ele>851.5999999999999</ele><time>2026-04-29T06:27:06.004Z</time></trkpt><trkpt lat="39.759350582758856" lon="9.487686042197138"><ele>852.2</ele><time>2026-04-29T06:27:07.004Z</time></trkpt><trkpt lat="39.759337207435514" lon="9.487551355597473"><ele>852.8000000000001</ele><time>2026-04-29T06:27:08.004Z</time></trkpt><trkpt lat="39.75932723559039" lon="9.487420808494557"><ele>853.4000000000001</ele><time>2026-04-29T06:27:09.004Z</time></trkpt><trkpt lat="39.75931194320229" lon="9.487300141582816"><ele>854.0</ele><time>2026-04-29T06:27:10.004Z</time></trkpt><trkpt lat="39.75929815068915" lon="9.487173595448581"><ele>854.8000000000001</ele><time>2026-04-29T06:27:11.004Z</time></trkpt><trkpt lat="39.75924831326534" lon="9.487067995161146"><ele>855.6000000000001</ele><time>2026-04-29T06:27:12.004Z</time></trkpt><trkpt lat="39.75922316743164" lon="9.486957666463983"><ele>856.4</ele><time>2026-04-29T06:27:13.004Z</time></trkpt><trkpt lat="39.75920927334291" lon="9.48683661160392"><ele>857.2</ele><time>2026-04-29T06:27:14.004Z</time></trkpt><trkpt lat="39.759209672915624" lon="9.48671284634095"><ele>858.0</ele><time>2026-04-29T06:27:15.004Z</time></trkpt><trkpt lat="39.75922164245591" lon="9.486579114908926"><ele>858.0</ele><time>2026-04-29T06:27:16.004Z</time></trkpt><trkpt lat="39.75922432638727" lon="9.486448245817074"><ele>858.0</ele><time>2026-04-29T06:27:17.004Z</time></trkpt><trkpt lat="39.75921118541292" lon="9.486308399454602"><ele>858.0</ele><time>2026-04-29T06:27:18.004Z</time></trkpt><trkpt lat="39.75918393843774" lon="9.48616659724283"><ele>858.0</ele><time>2026-04-29T06:27:19.004Z</time></trkpt><trkpt lat="39.75915449352256" lon="9.486022209433816"><ele>858.0</ele><time>2026-04-29T06:27:20.004Z</time></trkpt><trkpt lat="39.75912855166271" lon="9.485872850978518"><ele>858.2</ele><time>2026-04-29T06:27:21.004Z</time></trkpt><trkpt lat="39.75910290993959" lon="9.485722395368109"><ele>858.4</ele><time>2026-04-29T06:27:22.004Z</time></trkpt><trkpt lat="39.75907512948952" lon="9.485583453943365"><ele>858.6000000000001</ele><time>2026-04-29T06:27:23.004Z</time></trkpt><trkpt lat="39.75906137720185" lon="9.485465451988851"><ele>858.8000000000001</ele><time>2026-04-29T06:27:24.004Z</time></trkpt><trkpt lat="39.75906981085298" lon="9.485360654695993"><ele>859.0</ele><time>2026-04-29T06:27:25.004Z</time></trkpt><trkpt lat="39.759099856428826" lon="9.485248911502186"><ele>859.8000000000001</ele><time>2026-04-29T06:27:26.004Z</time></trkpt><trkpt lat="39.759147202917994" lon="9.48513546468051"><ele>860.6000000000001</ele><time>2026-04-29T06:27:27.004Z</time></trkpt><trkpt lat="39.75918803224869" lon="9.485009954065148"><ele>861.4</ele><time>2026-04-29T06:27:28.004Z</time></trkpt><trkpt lat="39.759211153379624" lon="9.484870017563455"><ele>862.2</ele><time>2026-04-29T06:27:29.004Z</time></trkpt><trkpt lat="39.759221981118756" lon="9.484726451085459"><ele>863.0</ele><time>2026-04-29T06:27:30.004Z</time></trkpt><trkpt lat="39.7592239602117" lon="9.484578721437055"><ele>864.2</ele><time>2026-04-29T06:27:31.004Z</time></trkpt><trkpt lat="39.759231692295074" lon="9.484435239786652"><ele>865.4</ele><time>2026-04-29T06:27:32.004Z</time></trkpt><trkpt lat="39.75925379832645" lon="9.484298022259123"><ele>866.6000000000001</ele><time>2026-04-29T06:27:33.004Z</time></trkpt><trkpt lat="39.75929091936842" lon="9.48417018838902"><ele>867.8000000000001</ele><time>2026-04-29T06:27:34.004Z</time></trkpt><trkpt lat="39.759344283743765" lon="9.484051051772035"><ele>869.0</ele><time>2026-04-29T06:27:35.004Z</time></trkpt><trkpt lat="39.759413689638535" lon="9.48394339089936"><ele>868.75</ele><time>2026-04-29T06:27:36.004Z</time></trkpt><trkpt lat="39.759501012013814" lon="9.483835461586537"><ele>868.5</ele><time>2026-04-29T06:27:37.004Z</time></trkpt><trkpt lat="39.75959538341055" lon="9.483726813528037"><ele>868.25</ele><time>2026-04-29T06:27:38.004Z</time></trkpt><trkpt lat="39.75968847865655" lon="9.48361359484071"><ele>868.0</ele><time>2026-04-29T06:27:39.004Z</time></trkpt><trkpt lat="39.75976881741542" lon="9.483495225541109"><ele>868.0</ele><time>2026-04-29T06:27:40.004Z</time></trkpt><trkpt lat="39.75985026232145" lon="9.48337625540572"><ele>868.0</ele><time>2026-04-29T06:27:41.004Z</time></trkpt><trkpt lat="39.75994395489444" lon="9.483262780985406"><ele>868.0</ele><time>2026-04-29T06:27:42.004Z</time></trkpt><trkpt lat="39.76003748524745" lon="9.483163381078514"><ele>868.0</ele><time>2026-04-29T06:27:43.004Z</time></trkpt><trkpt lat="39.76012094347956" lon="9.48305907259437"><ele>868.0</ele><time>2026-04-29T06:27:44.004Z</time></trkpt><trkpt lat="39.76019966532679" lon="9.48294100489292"><ele>868.0</ele><time>2026-04-29T06:27:45.004Z</time></trkpt><trkpt lat="39.76027842363569" lon="9.482828368372973"><ele>868.0</ele><time>2026-04-29T06:27:46.004Z</time></trkpt><trkpt lat="39.76036507042243" lon="9.482724357149191"><ele>868.0</ele><time>2026-04-29T06:27:47.004Z</time></trkpt><trkpt lat="39.76044392752674" lon="9.482636550616593"><ele>867.1666666666666</ele><time>2026-04-29T06:27:48.004Z</time></trkpt><trkpt lat="39.76052677787538" lon="9.482567529645015"><ele>866.3333333333333</ele><time>2026-04-29T06:27:49.004Z</time></trkpt><trkpt lat="39.76061093297555" lon="9.482511300128722"><ele>865.5</ele><time>2026-04-29T06:27:50.004Z</time></trkpt><trkpt lat="39.760685010556855" lon="9.482477780598252"><ele>864.6666666666667</ele><time>2026-04-29T06:27:51.004Z</time></trkpt><trkpt lat="39.76076333139067" lon="9.482456621186063"><ele>863.8333333333334</ele><time>2026-04-29T06:27:52.004Z</time></trkpt><trkpt lat="39.76084748509632" lon="9.482451172776802"><ele>863.0</ele><time>2026-04-29T06:27:53.004Z</time></trkpt><trkpt lat="39.76094267093837" lon="9.48246388003219"><ele>862.4</ele><time>2026-04-29T06:27:54.004Z</time></trkpt><trkpt lat="39.76104102538475" lon="9.482491721727305"><ele>861.8</ele><time>2026-04-29T06:27:55.004Z</time></trkpt><trkpt lat="39.761145028675706" lon="9.482529602169619"><ele>861.2</ele><time>2026-04-29T06:27:56.004Z</time></trkpt><trkpt lat="39.761256152732074" lon="9.482547240099114"><ele>860.6</ele><time>2026-04-29T06:27:57.004Z</time></trkpt><trkpt lat="39.761362152132186" lon="9.482538129142423"><ele>860.0</ele><time>2026-04-29T06:27:58.004Z</time></trkpt><trkpt lat="39.76147765978762" lon="9.482518958353882"><ele>860.0</ele><time>2026-04-29T06:27:59.004Z</time></trkpt><trkpt lat="39.76159349278054" lon="9.482510133399085"><ele>860.0</ele><time>2026-04-29T06:28:00.004Z</time></trkpt><trkpt lat="39.76170385236479" lon="9.48249850762842"><ele>860.0</ele><time>2026-04-29T06:28:01.004Z</time></trkpt><trkpt lat="39.76181041227606" lon="9.482494670931379"><ele>860.0</ele><time>2026-04-29T06:28:02.004Z</time></trkpt><trkpt lat="39.76192124073139" lon="9.48250519761636"><ele>860.0</ele><time>2026-04-29T06:28:03.004Z</time></trkpt><trkpt lat="39.762027528424355" lon="9.482531420889476"><ele>860.2</ele><time>2026-04-29T06:28:04.004Z</time></trkpt><trkpt lat="39.76213554897237" lon="9.48254479464534"><ele>860.4</ele><time>2026-04-29T06:28:05.004Z</time></trkpt><trkpt lat="39.76224208287813" lon="9.48253607442284"><ele>860.5999999999999</ele><time>2026-04-29T06:28:06.004Z</time></trkpt><trkpt lat="39.76235012215036" lon="9.48250195759211"><ele>860.8</ele><time>2026-04-29T06:28:07.004Z</time></trkpt><trkpt lat="39.762454986527196" lon="9.4824729755685"><ele>861.0</ele><time>2026-04-29T06:28:08.004Z</time></trkpt><trkpt lat="39.7625668404671" lon="9.482452751506136"><ele>861.0</ele><time>2026-04-29T06:28:09.004Z</time></trkpt><trkpt lat="39.76267937243773" lon="9.482442019060803"><ele>860.9999999999999</ele><time>2026-04-29T06:28:10.004Z</time></trkpt><trkpt lat="39.76279186648225" lon="9.482444741040165"><ele>860.9999999999999</ele><time>2026-04-29T06:28:11.004Z</time></trkpt><trkpt lat="39.76290390309888" lon="9.482455530432466"><ele>861.0</ele><time>2026-04-29T06:28:12.004Z</time></trkpt><trkpt lat="39.76299750814777" lon="9.482465704252915"><ele>861.0</ele><time>2026-04-29T06:28:13.004Z</time></trkpt><trkpt lat="39.76307697484007" lon="9.482471333014205"><ele>861.0</ele><time>2026-04-29T06:28:14.004Z</time></trkpt><trkpt lat="39.76315030351083" lon="9.482492470189419"><ele>861.0</ele><time>2026-04-29T06:28:15.004Z</time></trkpt><trkpt lat="39.76322546695747" lon="9.482527410679682"><ele>861.0</ele><time>2026-04-29T06:28:16.004Z</time></trkpt><trkpt lat="39.7633122628586" lon="9.482553229747289"><ele>861.0</ele><time>2026-04-29T06:28:17.004Z</time></trkpt><trkpt lat="39.763402447562" lon="9.482569640447338"><ele>861.0</ele><time>2026-04-29T06:28:18.004Z</time></trkpt><trkpt lat="39.76349597163442" lon="9.482572140556375"><ele>861.0</ele><time>2026-04-29T06:28:19.004Z</time></trkpt><trkpt lat="39.76358202798939" lon="9.482564882425832"><ele>859.3333333333334</ele><time>2026-04-29T06:28:20.004Z</time></trkpt><trkpt lat="39.76366465873379" lon="9.48255857303569"><ele>857.6666666666667</ele><time>2026-04-29T06:28:21.004Z</time></trkpt><trkpt lat="39.76373153812994" lon="9.482550113308173"><ele>856.0</ele><time>2026-04-29T06:28:22.004Z</time></trkpt><trkpt lat="39.763796700848374" lon="9.482539741472236"><ele>854.3333333333334</ele><time>2026-04-29T06:28:23.004Z</time></trkpt><trkpt lat="39.76390489552151" lon="9.482511569611985"><ele>852.6666666666667</ele><time>2026-04-29T06:28:25.004Z</time></trkpt><trkpt lat="39.76400006248475" lon="9.482437948490396"><ele>851.0</ele><time>2026-04-29T06:28:27.004Z</time></trkpt><trkpt lat="39.76405196038731" lon="9.482285620357558"><ele>851.0000000000001</ele><time>2026-04-29T06:28:29.004Z</time></trkpt><trkpt lat="39.7640679528649" lon="9.482195836506646"><ele>851.0</ele><time>2026-04-29T06:28:30.004Z</time></trkpt><trkpt lat="39.76407868568793" lon="9.48209799142048"><ele>851.0</ele><time>2026-04-29T06:28:31.004Z</time></trkpt><trkpt lat="39.764088767945175" lon="9.482009151820183"><ele>851.0</ele><time>2026-04-29T06:28:32.004Z</time></trkpt><trkpt lat="39.764100939209875" lon="9.481903185483512"><ele>851.0000000000001</ele><time>2026-04-29T06:28:33.004Z</time></trkpt><trkpt lat="39.76411799742826" lon="9.481804419139152"><ele>851.0</ele><time>2026-04-29T06:28:34.004Z</time></trkpt><trkpt lat="39.764131169432815" lon="9.48169200986539"><ele>851.5999999999999</ele><time>2026-04-29T06:28:35.004Z</time></trkpt><trkpt lat="39.76417609809221" lon="9.481572892312789"><ele>852.2</ele><time>2026-04-29T06:28:36.004Z</time></trkpt><trkpt lat="39.76421781957695" lon="9.48146389717864"><ele>852.8000000000001</ele><time>2026-04-29T06:28:37.004Z</time></trkpt><trkpt lat="39.76426365391431" lon="9.481359929439035"><ele>853.4000000000001</ele><time>2026-04-29T06:28:38.004Z</time></trkpt><trkpt lat="39.76431191227972" lon="9.48125761225419"><ele>854.0</ele><time>2026-04-29T06:28:39.004Z</time></trkpt><trkpt lat="39.764354637988504" lon="9.48115443268273"><ele>850.6666666666667</ele><time>2026-04-29T06:28:40.004Z</time></trkpt><trkpt lat="39.76440780402041" lon="9.481067828864257"><ele>847.3333333333334</ele><time>2026-04-29T06:28:41.004Z</time></trkpt><trkpt lat="39.76444867042183" lon="9.480988626567147"><ele>844.0</ele><time>2026-04-29T06:28:42.004Z</time></trkpt><trkpt lat="39.764498154286464" lon="9.480929233871661"><ele>840.6666666666667</ele><time>2026-04-29T06:28:43.004Z</time></trkpt><trkpt lat="39.76456052909306" lon="9.480869853718882"><ele>837.3333333333334</ele><time>2026-04-29T06:28:44.004Z</time></trkpt><trkpt lat="39.76463163663238" lon="9.48081210821666"><ele>834.0</ele><time>2026-04-29T06:28:45.004Z</time></trkpt><trkpt lat="39.764705888758186" lon="9.480760208045359"><ele>834.0</ele><time>2026-04-29T06:28:46.004Z</time></trkpt><trkpt lat="39.76478404381347" lon="9.480718804572826"><ele>834.0</ele><time>2026-04-29T06:28:47.004Z</time></trkpt><trkpt lat="39.76485079210194" lon="9.480680948239698"><ele>834.0</ele><time>2026-04-29T06:28:48.004Z</time></trkpt><trkpt lat="39.764926429603655" lon="9.480638651261096"><ele>834.0</ele><time>2026-04-29T06:28:49.004Z</time></trkpt><trkpt lat="39.76497538351215" lon="9.480544263507758"><ele>834.0</ele><time>2026-04-29T06:28:50.004Z</time></trkpt><trkpt lat="39.76504114563009" lon="9.480468273477342"><ele>834.0</ele><time>2026-04-29T06:28:51.004Z</time></trkpt><trkpt lat="39.76509213802752" lon="9.480367015709131"><ele>836.6</ele><time>2026-04-29T06:28:52.004Z</time></trkpt><trkpt lat="39.765117913637795" lon="9.480256181652797"><ele>839.2</ele><time>2026-04-29T06:28:53.004Z</time></trkpt><trkpt lat="39.76514669746286" lon="9.480139526693886"><ele>841.8000000000001</ele><time>2026-04-29T06:28:54.004Z</time></trkpt><trkpt lat="39.76516671139362" lon="9.480013438415028"><ele>844.4000000000001</ele><time>2026-04-29T06:28:55.004Z</time></trkpt><trkpt lat="39.765178970503435" lon="9.47986964009489"><ele>847.0</ele><time>2026-04-29T06:28:56.004Z</time></trkpt><trkpt lat="39.76519281741319" lon="9.47972674198224"><ele>839.8</ele><time>2026-04-29T06:28:57.004Z</time></trkpt><trkpt lat="39.765212191963556" lon="9.479582744988479"><ele>832.6</ele><time>2026-04-29T06:28:58.004Z</time></trkpt><trkpt lat="39.765236468406506" lon="9.479437681761459"><ele>825.4</ele><time>2026-04-29T06:28:59.004Z</time></trkpt><trkpt lat="39.7652615690435" lon="9.479298029343791"><ele>818.1999999999999</ele><time>2026-04-29T06:29:00.004Z</time></trkpt><trkpt lat="39.76527635117876" lon="9.47916435103959"><ele>811.0</ele><time>2026-04-29T06:29:01.004Z</time></trkpt><trkpt lat="39.76528890615389" lon="9.479051337646267"><ele>811.0</ele><time>2026-04-29T06:29:02.004Z</time></trkpt><trkpt lat="39.7652887308606" lon="9.478935034648451"><ele>811.0</ele><time>2026-04-29T06:29:03.004Z</time></trkpt><trkpt lat="39.76527878491425" lon="9.478808397057092"><ele>811.0</ele><time>2026-04-29T06:29:04.004Z</time></trkpt><trkpt lat="39.7652667014614" lon="9.47867981202333"><ele>811.0</ele><time>2026-04-29T06:29:05.004Z</time></trkpt><trkpt lat="39.76527081852272" lon="9.478544827361574"><ele>811.0</ele><time>2026-04-29T06:29:06.005Z</time></trkpt><trkpt lat="39.76527324726062" lon="9.478401991822206"><ele>810.4999999999999</ele><time>2026-04-29T06:29:07.005Z</time></trkpt><trkpt lat="39.76526723912336" lon="9.478270874495589"><ele>810.0</ele><time>2026-04-29T06:29:08.005Z</time></trkpt><trkpt lat="39.76526793653488" lon="9.478161525774981"><ele>809.5</ele><time>2026-04-29T06:29:09.005Z</time></trkpt><trkpt lat="39.76527810333048" lon="9.478063356955106"><ele>809.0</ele><time>2026-04-29T06:29:10.005Z</time></trkpt><trkpt lat="39.765311223313496" lon="9.477962619878163"><ele>808.4999999999999</ele><time>2026-04-29T06:29:11.005Z</time></trkpt><trkpt lat="39.76535567781874" lon="9.477852084236964"><ele>808.0</ele><time>2026-04-29T06:29:12.005Z</time></trkpt><trkpt lat="39.76540248516947" lon="9.47773031831732"><ele>809.8</ele><time>2026-04-29T06:29:13.005Z</time></trkpt><trkpt lat="39.76544359520082" lon="9.477601155628708"><ele>811.5999999999999</ele><time>2026-04-29T06:29:14.005Z</time></trkpt><trkpt lat="39.76548586265912" lon="9.477476349527441"><ele>813.4000000000001</ele><time>2026-04-29T06:29:15.005Z</time></trkpt><trkpt lat="39.76553202316203" lon="9.477367061930241"><ele>815.2</ele><time>2026-04-29T06:29:16.005Z</time></trkpt><trkpt lat="39.76558627625193" lon="9.477267615516212"><ele>817.0</ele><time>2026-04-29T06:29:17.005Z</time></trkpt><trkpt lat="39.76565306741642" lon="9.477176466044481"><ele>816.0</ele><time>2026-04-29T06:29:18.005Z</time></trkpt><trkpt lat="39.76571723705941" lon="9.477094032639744"><ele>815.0</ele><time>2026-04-29T06:29:19.005Z</time></trkpt><trkpt lat="39.76579078014543" lon="9.47702746048176"><ele>814.0</ele><time>2026-04-29T06:29:20.005Z</time></trkpt><trkpt lat="39.76586371146454" lon="9.476961882186627"><ele>813.0</ele><time>2026-04-29T06:29:21.005Z</time></trkpt><trkpt lat="39.765929482122765" lon="9.476902116453388"><ele>812.0</ele><time>2026-04-29T06:29:22.005Z</time></trkpt><trkpt lat="39.76604665296446" lon="9.47682956648252"><ele>812.0000000000001</ele><time>2026-04-29T06:29:24.005Z</time></trkpt><trkpt lat="39.76613055399869" lon="9.476809321291524"><ele>812.0</ele><time>2026-04-29T06:29:25.005Z</time></trkpt><trkpt lat="39.7662154801127" lon="9.47680815125305"><ele>812.0</ele><time>2026-04-29T06:29:26.005Z</time></trkpt><trkpt lat="39.76630777170474" lon="9.47679847316068"><ele>812.0</ele><time>2026-04-29T06:29:27.005Z</time></trkpt><trkpt lat="39.76639420218895" lon="9.476770351532961"><ele>812.0000000000001</ele><time>2026-04-29T06:29:28.005Z</time></trkpt><trkpt lat="39.766474032934234" lon="9.476725662655035"><ele>812.0</ele><time>2026-04-29T06:29:29.005Z</time></trkpt><trkpt lat="39.76654883193373" lon="9.47666884540542"><ele>812.0000000000001</ele><time>2026-04-29T06:29:30.005Z</time></trkpt><trkpt lat="39.7666392139837" lon="9.476616955242163"><ele>812.0</ele><time>2026-04-29T06:29:31.005Z</time></trkpt><trkpt lat="39.76670763834455" lon="9.47658034583564"><ele>812.0</ele><time>2026-04-29T06:29:32.005Z</time></trkpt><trkpt lat="39.766769781246865" lon="9.476533654255899"><ele>812.0</ele><time>2026-04-29T06:29:33.005Z</time></trkpt><trkpt lat="39.76683510323701" lon="9.476489787838453"><ele>812.0000000000001</ele><time>2026-04-29T06:29:34.005Z</time></trkpt><trkpt lat="39.76688723106507" lon="9.476419167314852"><ele>812.0</ele><time>2026-04-29T06:29:35.005Z</time></trkpt><trkpt lat="39.76693397847524" lon="9.476316724908465"><ele>810.6</ele><time>2026-04-29T06:29:36.005Z</time></trkpt><trkpt lat="39.76697055310217" lon="9.476210260675519"><ele>809.2</ele><time>2026-04-29T06:29:37.005Z</time></trkpt><trkpt lat="39.767005091135566" lon="9.476105837076068"><ele>807.8</ele><time>2026-04-29T06:29:38.005Z</time></trkpt><trkpt lat="39.76708251129037" lon="9.476019652717492"><ele>806.4</ele><time>2026-04-29T06:29:39.005Z</time></trkpt><trkpt lat="39.76718771424893" lon="9.475990062956418"><ele>805.0</ele><time>2026-04-29T06:29:40.005Z</time></trkpt><trkpt lat="39.767310340346185" lon="9.47594679408389"><ele>805.0</ele><time>2026-04-29T06:29:41.005Z</time></trkpt><trkpt lat="39.76743609067507" lon="9.475857637189756"><ele>805.0</ele><time>2026-04-29T06:29:42.005Z</time></trkpt><trkpt lat="39.76753982099497" lon="9.475758165325153"><ele>805.0</ele><time>2026-04-29T06:29:43.005Z</time></trkpt><trkpt lat="39.767643091005716" lon="9.475666891647567"><ele>805.0</ele><time>2026-04-29T06:29:44.005Z</time></trkpt><trkpt lat="39.767737932941706" lon="9.47559638011494"><ele>804.1666666666666</ele><time>2026-04-29T06:29:45.005Z</time></trkpt><trkpt lat="39.76782493779148" lon="9.475529824130916"><ele>803.3333333333333</ele><time>2026-04-29T06:29:46.005Z</time></trkpt><trkpt lat="39.76788503962634" lon="9.475468448550911"><ele>802.5</ele><time>2026-04-29T06:29:47.005Z</time></trkpt><trkpt lat="39.7679566578686" lon="9.475406254972908"><ele>801.6666666666667</ele><time>2026-04-29T06:29:48.005Z</time></trkpt><trkpt lat="39.76802616901546" lon="9.47533792975289"><ele>800.8333333333334</ele><time>2026-04-29T06:29:49.005Z</time></trkpt><trkpt lat="39.76810624757853" lon="9.475273497120133"><ele>800.0</ele><time>2026-04-29T06:29:50.005Z</time></trkpt><trkpt lat="39.76820005881612" lon="9.475236744682254"><ele>800.0000000000001</ele><time>2026-04-29T06:29:51.005Z</time></trkpt><trkpt lat="39.76827615207241" lon="9.475188255725637"><ele>800.0</ele><time>2026-04-29T06:29:52.005Z</time></trkpt><trkpt lat="39.768344215933" lon="9.475141111908483"><ele>800.0</ele><time>2026-04-29T06:29:53.005Z</time></trkpt><trkpt lat="39.768415975717005" lon="9.47508286357294"><ele>800.0</ele><time>2026-04-29T06:29:54.005Z</time></trkpt><trkpt lat="39.76848681916792" lon="9.475004995687625"><ele>800.0000000000001</ele><time>2026-04-29T06:29:55.005Z</time></trkpt><trkpt lat="39.768550867177275" lon="9.474916478104545"><ele>800.0</ele><time>2026-04-29T06:29:56.005Z</time></trkpt><trkpt lat="39.76860222422749" lon="9.474810821941476"><ele>795.8</ele><time>2026-04-29T06:29:57.005Z</time></trkpt><trkpt lat="39.768630440566255" lon="9.474680771149878"><ele>791.6</ele><time>2026-04-29T06:29:58.005Z</time></trkpt><trkpt lat="39.7686731820595" lon="9.474543987834062"><ele>787.4000000000001</ele><time>2026-04-29T06:29:59.005Z</time></trkpt><trkpt lat="39.76873886428424" lon="9.474429556593277"><ele>783.2</ele><time>2026-04-29T06:30:00.005Z</time></trkpt><trkpt lat="39.76879919777498" lon="9.474314396214874"><ele>779.0</ele><time>2026-04-29T06:30:01.005Z</time></trkpt><trkpt lat="39.76885714233047" lon="9.474197728418453"><ele>779.0</ele><time>2026-04-29T06:30:02.005Z</time></trkpt><trkpt lat="39.768901262000426" lon="9.47407747422676"><ele>779.0</ele><time>2026-04-29T06:30:03.005Z</time></trkpt><trkpt lat="39.76893480653531" lon="9.473952852169806"><ele>779.0</ele><time>2026-04-29T06:30:04.005Z</time></trkpt><trkpt lat="39.76894455410603" lon="9.473827298817017"><ele>779.0</ele><time>2026-04-29T06:30:05.005Z</time></trkpt><trkpt lat="39.76896066481076" lon="9.473703762782677"><ele>779.0</ele><time>2026-04-29T06:30:06.005Z</time></trkpt><trkpt lat="39.768965634384216" lon="9.473580677303255"><ele>779.0</ele><time>2026-04-29T06:30:07.005Z</time></trkpt><trkpt lat="39.768967679031284" lon="9.473461021080672"><ele>779.0</ele><time>2026-04-29T06:30:08.005Z</time></trkpt><trkpt lat="39.76897632115278" lon="9.473336137836796"><ele>779.0</ele><time>2026-04-29T06:30:09.005Z</time></trkpt><trkpt lat="39.76899797518094" lon="9.47320390180815"><ele>779.0</ele><time>2026-04-29T06:30:10.005Z</time></trkpt><trkpt lat="39.7690260967737" lon="9.473079108512923"><ele>779.0</ele><time>2026-04-29T06:30:11.005Z</time></trkpt><trkpt lat="39.76905028474818" lon="9.472950330737499"><ele>778.1666666666667</ele><time>2026-04-29T06:30:12.005Z</time></trkpt><trkpt lat="39.769067417922784" lon="9.472845205550394"><ele>777.3333333333334</ele><time>2026-04-29T06:30:13.005Z</time></trkpt><trkpt lat="39.769063846512005" lon="9.472733574423625"><ele>776.5</ele><time>2026-04-29T06:30:14.005Z</time></trkpt><trkpt lat="39.769051422092396" lon="9.472627216017674"><ele>775.6666666666667</ele><time>2026-04-29T06:30:15.005Z</time></trkpt><trkpt lat="39.769033560390604" lon="9.47250795908526"><ele>774.8333333333334</ele><time>2026-04-29T06:30:16.005Z</time></trkpt><trkpt lat="39.76902285720591" lon="9.472378845254447"><ele>774.0</ele><time>2026-04-29T06:30:17.005Z</time></trkpt><trkpt lat="39.76902634456937" lon="9.472255962213842"><ele>774.0</ele><time>2026-04-29T06:30:18.005Z</time></trkpt><trkpt lat="39.76904260543921" lon="9.472128240104514"><ele>774.0</ele><time>2026-04-29T06:30:19.005Z</time></trkpt><trkpt lat="39.76904424477651" lon="9.47200592634703"><ele>774.0</ele><time>2026-04-29T06:30:20.005Z</time></trkpt><trkpt lat="39.7690611008168" lon="9.47189677393859"><ele>774.0</ele><time>2026-04-29T06:30:21.005Z</time></trkpt><trkpt lat="39.76906782985471" lon="9.471807784088016"><ele>774.0</ele><time>2026-04-29T06:30:22.005Z</time></trkpt><trkpt lat="39.76906831372743" lon="9.471720991480035"><ele>774.0</ele><time>2026-04-29T06:30:23.005Z</time></trkpt><trkpt lat="39.76905719531519" lon="9.471627589414421"><ele>772.2</ele><time>2026-04-29T06:30:24.005Z</time></trkpt><trkpt lat="39.7690295345775" lon="9.47147949498733"><ele>770.4000000000001</ele><time>2026-04-29T06:30:26.005Z</time></trkpt><trkpt lat="39.76901130184783" lon="9.471390044467762"><ele>768.6</ele><time>2026-04-29T06:30:27.005Z</time></trkpt><trkpt lat="39.76897137630869" lon="9.471254477638618"><ele>766.8</ele><time>2026-04-29T06:30:29.005Z</time></trkpt><trkpt lat="39.76893971835718" lon="9.471176368305334"><ele>765.0</ele><time>2026-04-29T06:30:30.005Z</time></trkpt><trkpt lat="39.76882529603235" lon="9.471080651877411"><ele>762.6666666666666</ele><time>2026-04-29T06:30:32.005Z</time></trkpt><trkpt lat="39.76874640605005" lon="9.47104697717198"><ele>760.3333333333334</ele><time>2026-04-29T06:30:33.005Z</time></trkpt><trkpt lat="39.76866463274505" lon="9.471024893627645"><ele>758.0</ele><time>2026-04-29T06:30:34.005Z</time></trkpt><trkpt lat="39.768577189655176" lon="9.471007055891688"><ele>755.6666666666667</ele><time>2026-04-29T06:30:35.005Z</time></trkpt><trkpt lat="39.76849709587501" lon="9.470980445611632"><ele>753.3333333333334</ele><time>2026-04-29T06:30:36.005Z</time></trkpt><trkpt lat="39.76842377665622" lon="9.470952428380189"><ele>751.0</ele><time>2026-04-29T06:30:37.005Z</time></trkpt><trkpt lat="39.76834745024765" lon="9.47093185895224"><ele>751.0</ele><time>2026-04-29T06:30:38.005Z</time></trkpt><trkpt lat="39.76826674186566" lon="9.470923814362239"><ele>751.0</ele><time>2026-04-29T06:30:39.005Z</time></trkpt><trkpt lat="39.76816788236739" lon="9.470927934948156"><ele>751.0</ele><time>2026-04-29T06:30:40.005Z</time></trkpt><trkpt lat="39.76807956637488" lon="9.47093745697395"><ele>751.0</ele><time>2026-04-29T06:30:41.005Z</time></trkpt><trkpt lat="39.76798438159929" lon="9.470947690185053"><ele>751.0</ele><time>2026-04-29T06:30:42.005Z</time></trkpt><trkpt lat="39.76790020433866" lon="9.47096818969089"><ele>751.0</ele><time>2026-04-29T06:30:43.005Z</time></trkpt><trkpt lat="39.76781102078884" lon="9.470977046847233"><ele>751.0</ele><time>2026-04-29T06:30:44.005Z</time></trkpt><trkpt lat="39.76772547692503" lon="9.470981359817056"><ele>751.0</ele><time>2026-04-29T06:30:45.005Z</time></trkpt><trkpt lat="39.767636377800436" lon="9.470989957049898"><ele>751.0</ele><time>2026-04-29T06:30:46.005Z</time></trkpt><trkpt lat="39.767546709470636" lon="9.471005229584168"><ele>751.0</ele><time>2026-04-29T06:30:47.005Z</time></trkpt><trkpt lat="39.76745917227248" lon="9.471028253791959"><ele>751.0</ele><time>2026-04-29T06:30:48.005Z</time></trkpt><trkpt lat="39.767375481390154" lon="9.471051860743307"><ele>748.6666666666667</ele><time>2026-04-29T06:30:49.005Z</time></trkpt><trkpt lat="39.76728708191297" lon="9.471078765022424"><ele>746.3333333333334</ele><time>2026-04-29T06:30:50.005Z</time></trkpt><trkpt lat="39.767202341606534" lon="9.471091690332942"><ele>744.0</ele><time>2026-04-29T06:30:51.005Z</time></trkpt><trkpt lat="39.76712351115546" lon="9.471101074480027"><ele>741.6666666666666</ele><time>2026-04-29T06:30:52.005Z</time></trkpt><trkpt lat="39.76704767292748" lon="9.471113084415244"><ele>739.3333333333333</ele><time>2026-04-29T06:30:53.005Z</time></trkpt><trkpt lat="39.76697237965792" lon="9.471127552932511"><ele>737.0</ele><time>2026-04-29T06:30:54.005Z</time></trkpt><trkpt lat="39.766907751439334" lon="9.47114981125868"><ele>734.8</ele><time>2026-04-29T06:30:55.005Z</time></trkpt><trkpt lat="39.766840185712866" lon="9.471149325531737"><ele>732.6</ele><time>2026-04-29T06:30:56.005Z</time></trkpt><trkpt lat="39.76673310697441" lon="9.471187305404127"><ele>730.4</ele><time>2026-04-29T06:30:58.005Z</time></trkpt><trkpt lat="39.766672622606684" lon="9.471161627323289"><ele>728.1999999999999</ele><time>2026-04-29T06:30:59.005Z</time></trkpt><trkpt lat="39.766569424325226" lon="9.471100207550197"><ele>726.0</ele><time>2026-04-29T06:31:01.005Z</time></trkpt><trkpt lat="39.766457374532706" lon="9.471057526390112"><ele>726.0</ele><time>2026-04-29T06:31:03.005Z</time></trkpt><trkpt lat="39.76633164531604" lon="9.471080373016763"><ele>726.0</ele><time>2026-04-29T06:31:05.005Z</time></trkpt><trkpt lat="39.76625996885815" lon="9.47107598818741"><ele>726.0</ele><time>2026-04-29T06:31:06.005Z</time></trkpt><trkpt lat="39.76619094633727" lon="9.471102475554243"><ele>726.0</ele><time>2026-04-29T06:31:07.005Z</time></trkpt><trkpt lat="39.76612472789102" lon="9.471131191373395"><ele>726.0</ele><time>2026-04-29T06:31:08.005Z</time></trkpt><trkpt lat="39.766029636994276" lon="9.471190110303962"><ele>726.0</ele><time>2026-04-29T06:31:10.005Z</time></trkpt><trkpt lat="39.76591554556575" lon="9.471146875630888"><ele>726.1428571428571</ele><time>2026-04-29T06:31:12.005Z</time></trkpt><trkpt lat="39.76587487280817" lon="9.47108031542994"><ele>726.2857142857142</ele><time>2026-04-29T06:31:13.005Z</time></trkpt><trkpt lat="39.76584750889242" lon="9.47099444661474"><ele>726.4285714285713</ele><time>2026-04-29T06:31:14.005Z</time></trkpt><trkpt lat="39.76582609270848" lon="9.470902539540546"><ele>726.5714285714286</ele><time>2026-04-29T06:31:15.005Z</time></trkpt><trkpt lat="39.765812759252114" lon="9.470816051847525"><ele>726.7142857142858</ele><time>2026-04-29T06:31:16.005Z</time></trkpt><trkpt lat="39.76578811574255" lon="9.470737132645764"><ele>726.8571428571428</ele><time>2026-04-29T06:31:17.005Z</time></trkpt><trkpt lat="39.765764889143426" lon="9.470647137105777"><ele>727.0</ele><time>2026-04-29T06:31:18.005Z</time></trkpt><trkpt lat="39.76568678697619" lon="9.470571865254517"><ele>727.0</ele><time>2026-04-29T06:31:19.005Z</time></trkpt><trkpt lat="39.76562286419184" lon="9.470471336943246"><ele>727.0</ele><time>2026-04-29T06:31:20.005Z</time></trkpt><trkpt lat="39.76557532199497" lon="9.470366229873445"><ele>727.0</ele><time>2026-04-29T06:31:21.005Z</time></trkpt><trkpt lat="39.76553444292314" lon="9.470260789546805"><ele>727.0</ele><time>2026-04-29T06:31:22.005Z</time></trkpt><trkpt lat="39.765517271656506" lon="9.470148503998063"><ele>727.0</ele><time>2026-04-29T06:31:23.005Z</time></trkpt><trkpt lat="39.76547986188316" lon="9.470066741821377"><ele>727.0</ele><time>2026-04-29T06:31:24.005Z</time></trkpt><trkpt lat="39.765425090999614" lon="9.470008966285272"><ele>727.8333333333334</ele><time>2026-04-29T06:31:25.005Z</time></trkpt><trkpt lat="39.76538053926458" lon="9.46993608353043"><ele>728.6666666666667</ele><time>2026-04-29T06:31:26.005Z</time></trkpt><trkpt lat="39.76530195414772" lon="9.46992646388028"><ele>729.5</ele><time>2026-04-29T06:31:27.005Z</time></trkpt><trkpt lat="39.76520408448477" lon="9.469830946385793"><ele>730.3333333333334</ele><time>2026-04-29T06:31:29.005Z</time></trkpt><trkpt lat="39.76518916478614" lon="9.469749326597361"><ele>731.1666666666666</ele><time>2026-04-29T06:31:30.005Z</time></trkpt><trkpt lat="39.7652031277496" lon="9.469644756694567"><ele>732.0</ele><time>2026-04-29T06:31:31.005Z</time></trkpt><trkpt lat="39.76514216676895" lon="9.469495610586872"><ele>728.0</ele><time>2026-04-29T06:31:33.005Z</time></trkpt><trkpt lat="39.76507982129203" lon="9.469450289246083"><ele>724.0</ele><time>2026-04-29T06:31:34.005Z</time></trkpt><trkpt lat="39.76501456086002" lon="9.469372879895051"><ele>720.0</ele><time>2026-04-29T06:31:35.005Z</time></trkpt><trkpt lat="39.764948601849994" lon="9.469299101553432"><ele>716.0</ele><time>2026-04-29T06:31:36.005Z</time></trkpt><trkpt lat="39.76488960859894" lon="9.469232383062378"><ele>712.0</ele><time>2026-04-29T06:31:37.005Z</time></trkpt><trkpt lat="39.76483331121291" lon="9.469172339276549"><ele>708.0</ele><time>2026-04-29T06:31:38.005Z</time></trkpt><trkpt lat="39.76477121753599" lon="9.469051724455474"><ele>708.0</ele><time>2026-04-29T06:31:40.005Z</time></trkpt><trkpt lat="39.764760402948674" lon="9.468935133634549"><ele>708.0</ele><time>2026-04-29T06:31:42.005Z</time></trkpt><trkpt lat="39.764777964110664" lon="9.468795366533021"><ele>708.0</ele><time>2026-04-29T06:31:44.005Z</time></trkpt><trkpt lat="39.76477435472417" lon="9.468701670491019"><ele>708.0</ele><time>2026-04-29T06:31:45.005Z</time></trkpt><trkpt lat="39.764772854049596" lon="9.468601939167522"><ele>708.0</ele><time>2026-04-29T06:31:46.005Z</time></trkpt><trkpt lat="39.76478438267744" lon="9.468502806310909"><ele>708.0</ele><time>2026-04-29T06:31:47.005Z</time></trkpt><trkpt lat="39.764783828420676" lon="9.468407882388673"><ele>704.6666666666666</ele><time>2026-04-29T06:31:48.005Z</time></trkpt><trkpt lat="39.76481713243192" lon="9.468328661974818"><ele>701.3333333333334</ele><time>2026-04-29T06:31:49.005Z</time></trkpt><trkpt lat="39.76481281173996" lon="9.46817080739299"><ele>698.0</ele><time>2026-04-29T06:31:51.005Z</time></trkpt><trkpt lat="39.76479100711719" lon="9.468086587642107"><ele>694.6666666666667</ele><time>2026-04-29T06:31:52.005Z</time></trkpt><trkpt lat="39.764757715345254" lon="9.467994123120038"><ele>691.3333333333334</ele><time>2026-04-29T06:31:53.005Z</time></trkpt><trkpt lat="39.76473011607083" lon="9.467917649684441"><ele>688.0</ele><time>2026-04-29T06:31:54.005Z</time></trkpt><trkpt lat="39.76464428638075" lon="9.467772733364557"><ele>689.5</ele><time>2026-04-29T06:31:56.005Z</time></trkpt><trkpt lat="39.76457840017512" lon="9.46770061623949"><ele>691.0</ele><time>2026-04-29T06:31:57.005Z</time></trkpt><trkpt lat="39.764497740161474" lon="9.467623665823751"><ele>692.5</ele><time>2026-04-29T06:31:58.005Z</time></trkpt><trkpt lat="39.764431500189936" lon="9.467562191948806"><ele>694.0</ele><time>2026-04-29T06:31:59.005Z</time></trkpt><trkpt lat="39.764372046658835" lon="9.467503206567855"><ele>695.5</ele><time>2026-04-29T06:32:00.005Z</time></trkpt><trkpt lat="39.764323859107776" lon="9.46743958728963"><ele>697.0</ele><time>2026-04-29T06:32:01.005Z</time></trkpt><trkpt lat="39.764277268507826" lon="9.467371333496727"><ele>697.0</ele><time>2026-04-29T06:32:02.005Z</time></trkpt><trkpt lat="39.76422656917213" lon="9.467286598190622"><ele>697.0</ele><time>2026-04-29T06:32:03.005Z</time></trkpt><trkpt lat="39.76417042328348" lon="9.467195759725989"><ele>697.0</ele><time>2026-04-29T06:32:04.005Z</time></trkpt><trkpt lat="39.76415225579272" lon="9.467104079629205"><ele>697.0</ele><time>2026-04-29T06:32:05.005Z</time></trkpt><trkpt lat="39.76411307638151" lon="9.467015398892146"><ele>697.0</ele><time>2026-04-29T06:32:06.005Z</time></trkpt><trkpt lat="39.76405500075986" lon="9.466925926110285"><ele>697.0</ele><time>2026-04-29T06:32:07.005Z</time></trkpt><trkpt lat="39.76397741406246" lon="9.466851882152502"><ele>695.4000000000001</ele><time>2026-04-29T06:32:08.005Z</time></trkpt><trkpt lat="39.7638844307937" lon="9.466789549035065"><ele>693.8000000000001</ele><time>2026-04-29T06:32:09Z</time></trkpt><trkpt lat="39.76378399157729" lon="9.466752627509646"><ele>692.2</ele><time>2026-04-29T06:32:10Z</time></trkpt><trkpt lat="39.76368959899357" lon="9.46672010547077"><ele>690.6</ele><time>2026-04-29T06:32:11.001Z</time></trkpt><trkpt lat="39.76360277881503" lon="9.4666781225908"><ele>689.0</ele><time>2026-04-29T06:32:12.001Z</time></trkpt><trkpt lat="39.76352401933763" lon="9.466635933201356"><ele>689.0</ele><time>2026-04-29T06:32:13.001Z</time></trkpt><trkpt lat="39.7634613333894" lon="9.466595783552808"><ele>689.0</ele><time>2026-04-29T06:32:14.001Z</time></trkpt><trkpt lat="39.76340392634048" lon="9.466557789783547"><ele>689.0</ele><time>2026-04-29T06:32:16.001Z</time></trkpt><trkpt lat="39.76330388560829" lon="9.466456237542602"><ele>689.0</ele><time>2026-04-29T06:32:18.001Z</time></trkpt><trkpt lat="39.7633533381579" lon="9.46633731345952"><ele>689.0</ele><time>2026-04-29T06:32:19.001Z</time></trkpt><trkpt lat="39.76339271784656" lon="9.46626796780346"><ele>689.0</ele><time>2026-04-29T06:32:20.001Z</time></trkpt><trkpt lat="39.763436296586256" lon="9.466191787848558"><ele>687.0</ele><time>2026-04-29T06:32:21.001Z</time></trkpt><trkpt lat="39.763485237889974" lon="9.466106233728032"><ele>685.0</ele><time>2026-04-29T06:32:22.001Z</time></trkpt><trkpt lat="39.76354359349866" lon="9.465982776627957"><ele>683.0</ele><time>2026-04-29T06:32:24.001Z</time></trkpt><trkpt lat="39.763583172064955" lon="9.465841929029105"><ele>681.0</ele><time>2026-04-29T06:32:26.001Z</time></trkpt><trkpt lat="39.76355156709724" lon="9.465756260108835"><ele>679.0</ele><time>2026-04-29T06:32:27.001Z</time></trkpt><trkpt lat="39.7635071666013" lon="9.465661593819178"><ele>679.0</ele><time>2026-04-29T06:32:28.001Z</time></trkpt><trkpt lat="39.76348542262356" lon="9.465564742892195"><ele>679.0</ele><time>2026-04-29T06:32:29.001Z</time></trkpt><trkpt lat="39.76348069817676" lon="9.465480348828196"><ele>679.0</ele><time>2026-04-29T06:32:30.001Z</time></trkpt><trkpt lat="39.76349227617392" lon="9.465376016397713"><ele>679.0</ele><time>2026-04-29T06:32:31.001Z</time></trkpt><trkpt lat="39.763512807961305" lon="9.46527854646147"><ele>679.0</ele><time>2026-04-29T06:32:32.001Z</time></trkpt><trkpt lat="39.763539712355566" lon="9.46517881418823"><ele>679.0</ele><time>2026-04-29T06:32:33.001Z</time></trkpt><trkpt lat="39.763550803060575" lon="9.465094972775324"><ele>679.0</ele><time>2026-04-29T06:32:34.001Z</time></trkpt><trkpt lat="39.763559445963615" lon="9.464932086471562"><ele>677.4000000000001</ele><time>2026-04-29T06:32:36.001Z</time></trkpt><trkpt lat="39.763548695729504" lon="9.464820179741904"><ele>675.8</ele><time>2026-04-29T06:32:37.001Z</time></trkpt><trkpt lat="39.76352118208926" lon="9.464715878753848"><ele>674.2</ele><time>2026-04-29T06:32:38.001Z</time></trkpt><trkpt lat="39.76347187797339" lon="9.464609160646331"><ele>672.5999999999999</ele><time>2026-04-29T06:32:39.001Z</time></trkpt><trkpt lat="39.76339950142341" lon="9.46453114254245"><ele>671.0</ele><time>2026-04-29T06:32:40.001Z</time></trkpt><trkpt lat="39.76331411265536" lon="9.464464410800467"><ele>669.8333333333333</ele><time>2026-04-29T06:32:41.001Z</time></trkpt><trkpt lat="39.76325028592808" lon="9.464422894176195"><ele>668.6666666666666</ele><time>2026-04-29T06:32:42.001Z</time></trkpt><trkpt lat="39.7631955706776" lon="9.464367942987263"><ele>667.5</ele><time>2026-04-29T06:32:44.001Z</time></trkpt><trkpt lat="39.76315457746696" lon="9.464229520863048"><ele>666.3333333333334</ele><time>2026-04-29T06:33:27.001Z</time></trkpt><trkpt lat="39.76317299089175" lon="9.464114860281857"><ele>665.1666666666667</ele><time>2026-04-29T06:33:29.001Z</time></trkpt><trkpt lat="39.76321887911695" lon="9.464058570201747"><ele>664.0</ele><time>2026-04-29T06:33:30.001Z</time></trkpt><trkpt lat="39.76331069568915" lon="9.463941187174582"><ele>664.0</ele><time>2026-04-29T06:33:32.001Z</time></trkpt><trkpt lat="39.76336514701879" lon="9.463882128844416"><ele>664.0</ele><time>2026-04-29T06:33:33.001Z</time></trkpt><trkpt lat="39.76341850247511" lon="9.463819403559407"><ele>664.0</ele><time>2026-04-29T06:33:34.001Z</time></trkpt><trkpt lat="39.76346533055145" lon="9.463754267869724"><ele>664.0</ele><time>2026-04-29T06:33:35.001Z</time></trkpt><trkpt lat="39.76349670453082" lon="9.463680613239246"><ele>664.0</ele><time>2026-04-29T06:33:36.001Z</time></trkpt><trkpt lat="39.76350790035638" lon="9.463511706511708"><ele>664.0</ele><time>2026-04-29T06:33:38.001Z</time></trkpt><trkpt lat="39.76349670010952" lon="9.46340956849961"><ele>664.8000000000001</ele><time>2026-04-29T06:33:39.001Z</time></trkpt><trkpt lat="39.763484041845494" lon="9.463303586668744"><ele>665.6</ele><time>2026-04-29T06:33:40.001Z</time></trkpt><trkpt lat="39.763444490330535" lon="9.463203870165145"><ele>666.4</ele><time>2026-04-29T06:33:41.001Z</time></trkpt><trkpt lat="39.763419079669426" lon="9.463086328790244"><ele>667.2</ele><time>2026-04-29T06:33:42.001Z</time></trkpt><trkpt lat="39.76341403920302" lon="9.462958192548976"><ele>668.0</ele><time>2026-04-29T06:33:43.001Z</time></trkpt><trkpt lat="39.76342762121653" lon="9.462832361192397"><ele>668.2</ele><time>2026-04-29T06:33:44.001Z</time></trkpt><trkpt lat="39.763450508383535" lon="9.462706655474678"><ele>668.4</ele><time>2026-04-29T06:33:45.001Z</time></trkpt><trkpt lat="39.76349154486503" lon="9.462582729579413"><ele>668.6</ele><time>2026-04-29T06:33:46.001Z</time></trkpt><trkpt lat="39.76353881543232" lon="9.462469329208146"><ele>668.8000000000001</ele><time>2026-04-29T06:33:47.001Z</time></trkpt><trkpt lat="39.76359560913018" lon="9.46236524430153"><ele>669.0</ele><time>2026-04-29T06:33:48.001Z</time></trkpt><trkpt lat="39.76361863701168" lon="9.462229942267712"><ele>662.0</ele><time>2026-04-29T06:33:49.001Z</time></trkpt><trkpt lat="39.76363276684995" lon="9.462081697959942"><ele>655.0</ele><time>2026-04-29T06:33:50.001Z</time></trkpt><trkpt lat="39.763651238023165" lon="9.461905974774176"><ele>648.0</ele><time>2026-04-29T06:33:51.001Z</time></trkpt><trkpt lat="39.76366873021479" lon="9.461732660901419"><ele>641.0</ele><time>2026-04-29T06:33:52.001Z</time></trkpt><trkpt lat="39.763689204728145" lon="9.461557243415943"><ele>641.0</ele><time>2026-04-29T06:33:53.001Z</time></trkpt><trkpt lat="39.763699147728076" lon="9.461388565893298"><ele>641.0</ele><time>2026-04-29T06:33:54.001Z</time></trkpt><trkpt lat="39.763723525301046" lon="9.461226882109338"><ele>641.0</ele><time>2026-04-29T06:33:55.001Z</time></trkpt><trkpt lat="39.76373770329129" lon="9.461072944634116"><ele>641.0</ele><time>2026-04-29T06:33:56.001Z</time></trkpt><trkpt lat="39.76376069492327" lon="9.460920185979868"><ele>641.0</ele><time>2026-04-29T06:33:57.001Z</time></trkpt><trkpt lat="39.76376963393614" lon="9.460765302730751"><ele>641.0</ele><time>2026-04-29T06:33:58.001Z</time></trkpt><trkpt lat="39.76376613673432" lon="9.460607179695385"><ele>641.0</ele><time>2026-04-29T06:33:59.001Z</time></trkpt><trkpt lat="39.76375398929644" lon="9.460440165347471"><ele>641.0</ele><time>2026-04-29T06:34:00.001Z</time></trkpt><trkpt lat="39.76374051010564" lon="9.460266289425306"><ele>641.4</ele><time>2026-04-29T06:34:01.001Z</time></trkpt><trkpt lat="39.763732096577854" lon="9.460107864058788"><ele>641.8</ele><time>2026-04-29T06:34:02.001Z</time></trkpt><trkpt lat="39.76373226413778" lon="9.45996906774744"><ele>642.1999999999999</ele><time>2026-04-29T06:34:03.001Z</time></trkpt><trkpt lat="39.763745175549765" lon="9.459850261040645"><ele>642.5999999999999</ele><time>2026-04-29T06:34:04.001Z</time></trkpt><trkpt lat="39.76375562605489" lon="9.45975805138149"><ele>643.0</ele><time>2026-04-29T06:34:05.001Z</time></trkpt><trkpt lat="39.76380483901379" lon="9.459604117781781"><ele>644.8</ele><time>2026-04-29T06:34:07.001Z</time></trkpt><trkpt lat="39.763881966260136" lon="9.45953707296613"><ele>646.5999999999999</ele><time>2026-04-29T06:34:08.001Z</time></trkpt><trkpt lat="39.763950427086634" lon="9.459455638479557"><ele>648.4000000000001</ele><time>2026-04-29T06:34:09.001Z</time></trkpt><trkpt lat="39.76400610744468" lon="9.45936087419035"><ele>650.2</ele><time>2026-04-29T06:34:10.001Z</time></trkpt><trkpt lat="39.76406414789899" lon="9.459258173399935"><ele>652.0</ele><time>2026-04-29T06:34:11.001Z</time></trkpt><trkpt lat="39.764125743824025" lon="9.459152826438759"><ele>652.0</ele><time>2026-04-29T06:34:12.001Z</time></trkpt><trkpt lat="39.764191897038735" lon="9.459061915699465"><ele>652.0</ele><time>2026-04-29T06:34:13.001Z</time></trkpt><trkpt lat="39.764260537456565" lon="9.458985482710297"><ele>652.0</ele><time>2026-04-29T06:34:14.001Z</time></trkpt><trkpt lat="39.76434134484866" lon="9.458922656264015"><ele>652.0</ele><time>2026-04-29T06:34:15.001Z</time></trkpt><trkpt lat="39.76443432024944" lon="9.458877271381807"><ele>652.0</ele><time>2026-04-29T06:34:16.001Z</time></trkpt><trkpt lat="39.76453102411701" lon="9.458837858999738"><ele>652.4000000000001</ele><time>2026-04-29T06:34:17.001Z</time></trkpt><trkpt lat="39.76462717852105" lon="9.458825146907092"><ele>652.8000000000001</ele><time>2026-04-29T06:34:18.001Z</time></trkpt><trkpt lat="39.76472098356923" lon="9.458780952715468"><ele>653.2</ele><time>2026-04-29T06:34:19.001Z</time></trkpt><trkpt lat="39.7648052480477" lon="9.458722155799679"><ele>653.6</ele><time>2026-04-29T06:34:20.001Z</time></trkpt><trkpt lat="39.76488636796928" lon="9.458653980608489"><ele>654.0</ele><time>2026-04-29T06:34:21.001Z</time></trkpt><trkpt lat="39.76497038417166" lon="9.458578581960122"><ele>654.0</ele><time>2026-04-29T06:34:22.001Z</time></trkpt><trkpt lat="39.76505035152738" lon="9.458507988304806"><ele>654.0</ele><time>2026-04-29T06:34:23.001Z</time></trkpt><trkpt lat="39.7651187100247" lon="9.45844805395568"><ele>654.0</ele><time>2026-04-29T06:34:24.001Z</time></trkpt><trkpt lat="39.76519130398764" lon="9.45838480507402"><ele>654.0</ele><time>2026-04-29T06:34:25.001Z</time></trkpt><trkpt lat="39.76525544543734" lon="9.458332796658633"><ele>654.0</ele><time>2026-04-29T06:34:26.001Z</time></trkpt><trkpt lat="39.7653224733218" lon="9.458278700137862"><ele>654.0</ele><time>2026-04-29T06:34:27.001Z</time></trkpt><trkpt lat="39.765383357394796" lon="9.458235370601214"><ele>654.4000000000001</ele><time>2026-04-29T06:34:28.001Z</time></trkpt><trkpt lat="39.765450793070954" lon="9.458187691078757"><ele>654.8</ele><time>2026-04-29T06:34:29.001Z</time></trkpt><trkpt lat="39.765522490913916" lon="9.458136997951014"><ele>655.2</ele><time>2026-04-29T06:34:30.001Z</time></trkpt><trkpt lat="39.76559370249073" lon="9.45808404603307"><ele>655.5999999999999</ele><time>2026-04-29T06:34:31.001Z</time></trkpt><trkpt lat="39.76567298418605" lon="9.458011019697885"><ele>656.0</ele><time>2026-04-29T06:34:32.001Z</time></trkpt><trkpt lat="39.76601711525558" lon="9.457857671226453"><ele>653.4</ele><time>2026-04-29T06:34:33.001Z</time></trkpt><trkpt lat="39.76612952576783" lon="9.45785356683753"><ele>650.8</ele><time>2026-04-29T06:34:34.001Z</time></trkpt><trkpt lat="39.76623701788296" lon="9.45785145856663"><ele>648.1999999999999</ele><time>2026-04-29T06:34:35.001Z</time></trkpt><trkpt lat="39.766341839835945" lon="9.457855501652423"><ele>645.5999999999999</ele><time>2026-04-29T06:34:36.001Z</time></trkpt><trkpt lat="39.766450023046595" lon="9.457870636139868"><ele>643.0</ele><time>2026-04-29T06:34:37.001Z</time></trkpt><trkpt lat="39.766550529588464" lon="9.457915513850718"><ele>643.0</ele><time>2026-04-29T06:34:38.001Z</time></trkpt><trkpt lat="39.76665042906166" lon="9.45794680312294"><ele>643.0</ele><time>2026-04-29T06:34:39.001Z</time></trkpt><trkpt lat="39.7667542181698" lon="9.457955396984177"><ele>643.0</ele><time>2026-04-29T06:34:40.001Z</time></trkpt><trkpt lat="39.76685386105778" lon="9.457950869181"><ele>643.0</ele><time>2026-04-29T06:34:41.001Z</time></trkpt><trkpt lat="39.766955306126675" lon="9.457907190127523"><ele>643.0</ele><time>2026-04-29T06:34:42.001Z</time></trkpt><trkpt lat="39.76707068166932" lon="9.45789774348128"><ele>639.8333333333334</ele><time>2026-04-29T06:34:43.001Z</time></trkpt><trkpt lat="39.767166803346534" lon="9.457846251637484"><ele>636.6666666666667</ele><time>2026-04-29T06:34:44.001Z</time></trkpt><trkpt lat="39.76724869739105" lon="9.45781804096211"><ele>633.5</ele><time>2026-04-29T06:34:45.001Z</time></trkpt><trkpt lat="39.76730867431527" lon="9.457775040880906"><ele>630.3333333333334</ele><time>2026-04-29T06:34:46.001Z</time></trkpt><trkpt lat="39.76738130292017" lon="9.457702961202779"><ele>627.1666666666666</ele><time>2026-04-29T06:34:47.001Z</time></trkpt><trkpt lat="39.767450634564476" lon="9.457612479906816"><ele>624.0</ele><time>2026-04-29T06:34:48.001Z</time></trkpt><trkpt lat="39.76753330402445" lon="9.457508011070969"><ele>624.0</ele><time>2026-04-29T06:34:49.001Z</time></trkpt><trkpt lat="39.76760814270483" lon="9.457387293695605"><ele>624.0</ele><time>2026-04-29T06:34:50.001Z</time></trkpt><trkpt lat="39.767680831710194" lon="9.457256447206984"><ele>624.0</ele><time>2026-04-29T06:34:51.001Z</time></trkpt><trkpt lat="39.76773512812704" lon="9.457125248500224"><ele>624.0</ele><time>2026-04-29T06:34:52.001Z</time></trkpt><trkpt lat="39.767783872824126" lon="9.456989734641066"><ele>620.2</ele><time>2026-04-29T06:34:53.001Z</time></trkpt><trkpt lat="39.76782585632728" lon="9.456854132153373"><ele>616.4</ele><time>2026-04-29T06:34:54.001Z</time></trkpt><trkpt lat="39.76786502602202" lon="9.45671664444798"><ele>612.6</ele><time>2026-04-29T06:34:55.001Z</time></trkpt><trkpt lat="39.76787829508871" lon="9.456592496153284"><ele>608.8</ele><time>2026-04-29T06:34:56.001Z</time></trkpt><trkpt lat="39.76786642889197" lon="9.456486800068154"><ele>605.0</ele><time>2026-04-29T06:34:57.001Z</time></trkpt><trkpt lat="39.76787587926682" lon="9.456371712749677"><ele>603.5</ele><time>2026-04-29T06:34:58.001Z</time></trkpt><trkpt lat="39.76787032641775" lon="9.456217471926584"><ele>602.0</ele><time>2026-04-29T06:34:59.001Z</time></trkpt><trkpt lat="39.76788057987838" lon="9.45606436641195"><ele>600.5</ele><time>2026-04-29T06:35:00Z</time></trkpt><trkpt lat="39.76788761080631" lon="9.455920277661445"><ele>599.0</ele><time>2026-04-29T06:35:01Z</time></trkpt><trkpt lat="39.76788836906832" lon="9.455785142072964"><ele>599.0</ele><time>2026-04-29T06:35:02Z</time></trkpt><trkpt lat="39.76788509273585" lon="9.455655068319846"><ele>599.0</ele><time>2026-04-29T06:35:03Z</time></trkpt><trkpt lat="39.76786421255521" lon="9.455531775718221"><ele>599.0</ele><time>2026-04-29T06:35:04Z</time></trkpt><trkpt lat="39.76783093509163" lon="9.455418938456253"><ele>599.0</ele><time>2026-04-29T06:35:05.001Z</time></trkpt><trkpt lat="39.767799884347745" lon="9.455301386141803"><ele>599.0</ele><time>2026-04-29T06:35:06Z</time></trkpt><trkpt lat="39.7677442172682" lon="9.455176610660182"><ele>600.2</ele><time>2026-04-29T06:35:07Z</time></trkpt><trkpt lat="39.767702485471645" lon="9.455067525544813"><ele>601.4</ele><time>2026-04-29T06:35:08.001Z</time></trkpt><trkpt lat="39.767665172680715" lon="9.454944422815018"><ele>602.6</ele><time>2026-04-29T06:35:09Z</time></trkpt><trkpt lat="39.76761450999021" lon="9.454833937178618"><ele>603.8</ele><time>2026-04-29T06:35:10Z</time></trkpt><trkpt lat="39.767588559561815" lon="9.454718635468021"><ele>605.0</ele><time>2026-04-29T06:35:11Z</time></trkpt><trkpt lat="39.76757448025641" lon="9.454610561255217"><ele>605.0</ele><time>2026-04-29T06:35:12Z</time></trkpt><trkpt lat="39.76757037676059" lon="9.454487490451617"><ele>605.0</ele><time>2026-04-29T06:35:13Z</time></trkpt><trkpt lat="39.7675598493875" lon="9.454369790831572"><ele>605.0</ele><time>2026-04-29T06:35:14Z</time></trkpt><trkpt lat="39.767561212948344" lon="9.454251139615852"><ele>605.0</ele><time>2026-04-29T06:35:15Z</time></trkpt><trkpt lat="39.767545598924194" lon="9.454131979526926"><ele>605.0</ele><time>2026-04-29T06:35:16Z</time></trkpt><trkpt lat="39.767508252552624" lon="9.453993376124226"><ele>605.0</ele><time>2026-04-29T06:35:17Z</time></trkpt><trkpt lat="39.7674805343234" lon="9.453857533470451"><ele>605.0</ele><time>2026-04-29T06:35:18Z</time></trkpt><trkpt lat="39.7674445378835" lon="9.453736413159508"><ele>605.0</ele><time>2026-04-29T06:35:19Z</time></trkpt><trkpt lat="39.76740736249188" lon="9.45366534806091"><ele>605.0</ele><time>2026-04-29T06:35:20Z</time></trkpt><trkpt lat="39.76741755462157" lon="9.453545277514271"><ele>605.0</ele><time>2026-04-29T06:35:22Z</time></trkpt><trkpt lat="39.76747473377166" lon="9.453463803727738"><ele>605.5</ele><time>2026-04-29T06:35:23Z</time></trkpt><trkpt lat="39.76753384150119" lon="9.453397231615671"><ele>606.0</ele><time>2026-04-29T06:35:24Z</time></trkpt><trkpt lat="39.76758975557938" lon="9.453342810604298"><ele>606.5</ele><time>2026-04-29T06:35:25Z</time></trkpt><trkpt lat="39.76766553499429" lon="9.453294064651299"><ele>607.0</ele><time>2026-04-29T06:35:26Z</time></trkpt><trkpt lat="39.76774757668027" lon="9.453280218128041"><ele>607.5</ele><time>2026-04-29T06:35:27Z</time></trkpt><trkpt lat="39.76783486546894" lon="9.453271750266937"><ele>608.0</ele><time>2026-04-29T06:35:28Z</time></trkpt><trkpt lat="39.76791917563472" lon="9.45325179708289"><ele>603.5</ele><time>2026-04-29T06:35:29Z</time></trkpt><trkpt lat="39.76797753555537" lon="9.453217803632967"><ele>599.0</ele><time>2026-04-29T06:35:30Z</time></trkpt><trkpt lat="39.76802914074156" lon="9.45315343463645"><ele>594.5</ele><time>2026-04-29T06:35:31Z</time></trkpt><trkpt lat="39.76808069190695" lon="9.453073453514818"><ele>590.0</ele><time>2026-04-29T06:35:32Z</time></trkpt><trkpt lat="39.76811330413487" lon="9.452976255658378"><ele>585.5</ele><time>2026-04-29T06:35:33Z</time></trkpt><trkpt lat="39.7681340975313" lon="9.45287624562126"><ele>581.0</ele><time>2026-04-29T06:35:34Z</time></trkpt><trkpt lat="39.768154150556974" lon="9.452770250342768"><ele>581.0</ele><time>2026-04-29T06:35:35Z</time></trkpt><trkpt lat="39.76817713381006" lon="9.452659108305403"><ele>581.0</ele><time>2026-04-29T06:35:36Z</time></trkpt><trkpt lat="39.76816148244773" lon="9.452545651871446"><ele>581.0</ele><time>2026-04-29T06:35:37Z</time></trkpt><trkpt lat="39.76814496901996" lon="9.45242973443296"><ele>581.0</ele><time>2026-04-29T06:35:38Z</time></trkpt><trkpt lat="39.768117762702055" lon="9.452305902953634"><ele>581.0</ele><time>2026-04-29T06:35:39Z</time></trkpt><trkpt lat="39.76809383640787" lon="9.452170958629209"><ele>576.75</ele><time>2026-04-29T06:35:40Z</time></trkpt><trkpt lat="39.76804212482649" lon="9.45205025062322"><ele>572.5</ele><time>2026-04-29T06:35:41Z</time></trkpt><trkpt lat="39.7679783441215" lon="9.451921388733258"><ele>568.25</ele><time>2026-04-29T06:35:42Z</time></trkpt><trkpt lat="39.76791110488807" lon="9.451799576711512"><ele>564.0</ele><time>2026-04-29T06:35:43Z</time></trkpt><trkpt lat="39.76783816277115" lon="9.451682209664561"><ele>564.0</ele><time>2026-04-29T06:35:44Z</time></trkpt><trkpt lat="39.767766763590465" lon="9.451575021182556"><ele>564.0</ele><time>2026-04-29T06:35:45Z</time></trkpt><trkpt lat="39.76769530111114" lon="9.451499344810655"><ele>564.0</ele><time>2026-04-29T06:35:46Z</time></trkpt><trkpt lat="39.76765028399261" lon="9.451429580002836"><ele>564.0</ele><time>2026-04-29T06:35:47Z</time></trkpt><trkpt lat="39.76764412154323" lon="9.451270681511811"><ele>564.0</ele><time>2026-04-29T06:35:49Z</time></trkpt><trkpt lat="39.76766629620029" lon="9.451170731310512"><ele>561.4</ele><time>2026-04-29T06:35:50Z</time></trkpt><trkpt lat="39.76769857539177" lon="9.451054759089676"><ele>558.8</ele><time>2026-04-29T06:35:51Z</time></trkpt><trkpt lat="39.76774863133827" lon="9.450941421524837"><ele>556.2</ele><time>2026-04-29T06:35:52Z</time></trkpt><trkpt lat="39.767811851107716" lon="9.450829296051596"><ele>553.6</ele><time>2026-04-29T06:35:53Z</time></trkpt><trkpt lat="39.76786919521189" lon="9.450709066385897"><ele>551.0</ele><time>2026-04-29T06:35:54Z</time></trkpt><trkpt lat="39.76792136581396" lon="9.450591587444892"><ele>551.0</ele><time>2026-04-29T06:35:55Z</time></trkpt><trkpt lat="39.767968834028856" lon="9.450471836455156"><ele>551.0</ele><time>2026-04-29T06:35:56Z</time></trkpt><trkpt lat="39.76800457823061" lon="9.450343707861492"><ele>551.0</ele><time>2026-04-29T06:35:57Z</time></trkpt><trkpt lat="39.76802467814038" lon="9.450213501199771"><ele>551.0</ele><time>2026-04-29T06:35:58Z</time></trkpt><trkpt lat="39.768028314463244" lon="9.450081260451793"><ele>551.0</ele><time>2026-04-29T06:35:59Z</time></trkpt><trkpt lat="39.76803497538396" lon="9.449934434930999"><ele>551.75</ele><time>2026-04-29T06:36:00Z</time></trkpt><trkpt lat="39.76804818305131" lon="9.449776480504491"><ele>552.5</ele><time>2026-04-29T06:36:01Z</time></trkpt><trkpt lat="39.76806550303929" lon="9.449629810019285"><ele>553.25</ele><time>2026-04-29T06:36:02Z</time></trkpt><trkpt lat="39.76808077006039" lon="9.449486356336305"><ele>554.0</ele><time>2026-04-29T06:36:03Z</time></trkpt><trkpt lat="39.768093481830086" lon="9.449343874354724"><ele>553.6</ele><time>2026-04-29T06:36:04Z</time></trkpt><trkpt lat="39.76809346007834" lon="9.449195170710194"><ele>553.2</ele><time>2026-04-29T06:36:05Z</time></trkpt><trkpt lat="39.7680832618617" lon="9.44906091215524"><ele>552.8000000000001</ele><time>2026-04-29T06:36:06Z</time></trkpt><trkpt lat="39.768060058854324" lon="9.448934453806208"><ele>552.4</ele><time>2026-04-29T06:36:07Z</time></trkpt><trkpt lat="39.76804001053615" lon="9.448838481658704"><ele>552.0</ele><time>2026-04-29T06:36:08Z</time></trkpt><trkpt lat="39.76807272188348" lon="9.448694529936763"><ele>552.0</ele><time>2026-04-29T06:36:10Z</time></trkpt><trkpt lat="39.76811827047189" lon="9.44858628159269"><ele>552.0</ele><time>2026-04-29T06:36:11.001Z</time></trkpt><trkpt lat="39.76818328055649" lon="9.448488713936436"><ele>552.0</ele><time>2026-04-29T06:36:12.001Z</time></trkpt><trkpt lat="39.76823451807656" lon="9.448368754847307"><ele>552.0</ele><time>2026-04-29T06:36:13.001Z</time></trkpt><trkpt lat="39.76827750137618" lon="9.448245500292526"><ele>552.0</ele><time>2026-04-29T06:36:14.001Z</time></trkpt><trkpt lat="39.76831246543369" lon="9.448118639685156"><ele>552.0</ele><time>2026-04-29T06:36:15.001Z</time></trkpt><trkpt lat="39.76833993571391" lon="9.447979191754358"><ele>552.0</ele><time>2026-04-29T06:36:16.001Z</time></trkpt><trkpt lat="39.76837041055114" lon="9.447841462961577"><ele>552.0</ele><time>2026-04-29T06:36:17.001Z</time></trkpt><trkpt lat="39.76839602117853" lon="9.447703032444707"><ele>552.0</ele><time>2026-04-29T06:36:18.001Z</time></trkpt><trkpt lat="39.76841381026991" lon="9.44757600873657"><ele>552.0</ele><time>2026-04-29T06:36:19.001Z</time></trkpt><trkpt lat="39.768427672091036" lon="9.447467860207844"><ele>551.2</ele><time>2026-04-29T06:36:20.001Z</time></trkpt><trkpt lat="39.768431453887516" lon="9.447375518817987"><ele>550.4000000000001</ele><time>2026-04-29T06:36:21.001Z</time></trkpt><trkpt lat="39.768397445240005" lon="9.4472225851442"><ele>549.5999999999999</ele><time>2026-04-29T06:36:23.001Z</time></trkpt><trkpt lat="39.76834869855605" lon="9.447113257755817"><ele>548.8</ele><time>2026-04-29T06:36:24.001Z</time></trkpt><trkpt lat="39.768288754125344" lon="9.446978107935829"><ele>548.0</ele><time>2026-04-29T06:36:25.001Z</time></trkpt><trkpt lat="39.768242014657424" lon="9.446833782053709"><ele>544.75</ele><time>2026-04-29T06:36:26.001Z</time></trkpt><trkpt lat="39.76820434450031" lon="9.446689782508871"><ele>541.5</ele><time>2026-04-29T06:36:27.001Z</time></trkpt><trkpt lat="39.76814645073638" lon="9.446540204300522"><ele>538.25</ele><time>2026-04-29T06:36:28.001Z</time></trkpt><trkpt lat="39.76808632327916" lon="9.446380177897018"><ele>535.0</ele><time>2026-04-29T06:36:29.001Z</time></trkpt><trkpt lat="39.768024845490146" lon="9.44620138611968"><ele>531.0</ele><time>2026-04-29T06:36:30.001Z</time></trkpt><trkpt lat="39.76795314705975" lon="9.446012612590284"><ele>527.0</ele><time>2026-04-29T06:36:31.001Z</time></trkpt><trkpt lat="39.767892390620965" lon="9.44584293882341"><ele>523.0</ele><time>2026-04-29T06:36:32.001Z</time></trkpt><trkpt lat="39.76783648594341" lon="9.445699059919622"><ele>519.0</ele><time>2026-04-29T06:36:33.001Z</time></trkpt><trkpt lat="39.767787977707826" lon="9.44556735413782"><ele>517.4</ele><time>2026-04-29T06:36:34.001Z</time></trkpt><trkpt lat="39.76776296104327" lon="9.44545446961398"><ele>515.8</ele><time>2026-04-29T06:36:35.001Z</time></trkpt><trkpt lat="39.767732828080355" lon="9.44536840086558"><ele>514.2</ele><time>2026-04-29T06:36:36.001Z</time></trkpt><trkpt lat="39.76772280523174" lon="9.445264853051837"><ele>512.6</ele><time>2026-04-29T06:36:37.001Z</time></trkpt><trkpt lat="39.76770953077167" lon="9.445136129087107"><ele>511.0</ele><time>2026-04-29T06:36:38.001Z</time></trkpt><trkpt lat="39.767702163419486" lon="9.444996545167468"><ele>511.0</ele><time>2026-04-29T06:36:39.001Z</time></trkpt><trkpt lat="39.76769978901531" lon="9.44486240682277"><ele>511.0</ele><time>2026-04-29T06:36:40.001Z</time></trkpt><trkpt lat="39.767679858228" lon="9.444749536299163"><ele>511.0</ele><time>2026-04-29T06:36:41.001Z</time></trkpt><trkpt lat="39.767658232605534" lon="9.444642036310423"><ele>511.0</ele><time>2026-04-29T06:36:42.001Z</time></trkpt><trkpt lat="39.76759231577478" lon="9.44456419948064"><ele>511.0</ele><time>2026-04-29T06:36:43.001Z</time></trkpt><trkpt lat="39.7675253100811" lon="9.444480110244536"><ele>513.8</ele><time>2026-04-29T06:36:44.001Z</time></trkpt><trkpt lat="39.76745921590035" lon="9.444384074592271"><ele>516.6</ele><time>2026-04-29T06:36:45.001Z</time></trkpt><trkpt lat="39.767363293628506" lon="9.444328488631145"><ele>519.4</ele><time>2026-04-29T06:36:46.001Z</time></trkpt><trkpt lat="39.76727889939156" lon="9.444233750454003"><ele>522.2</ele><time>2026-04-29T06:36:47.001Z</time></trkpt><trkpt lat="39.76718959552521" lon="9.444143995574725"><ele>525.0</ele><time>2026-04-29T06:36:48.001Z</time></trkpt><trkpt lat="39.76711464625171" lon="9.444047871736368"><ele>525.0</ele><time>2026-04-29T06:36:49.001Z</time></trkpt><trkpt lat="39.767034399343" lon="9.443951143968734"><ele>525.0</ele><time>2026-04-29T06:36:50.001Z</time></trkpt><trkpt lat="39.76698429656553" lon="9.443842906986134"><ele>525.0</ele><time>2026-04-29T06:36:51.001Z</time></trkpt><trkpt lat="39.76695548457504" lon="9.44371097628862"><ele>525.0</ele><time>2026-04-29T06:36:52.001Z</time></trkpt><trkpt lat="39.76690187379148" lon="9.443581705028379"><ele>525.0</ele><time>2026-04-29T06:36:53.001Z</time></trkpt><trkpt lat="39.76687354763927" lon="9.443436085727773"><ele>525.0</ele><time>2026-04-29T06:36:54.001Z</time></trkpt><trkpt lat="39.766845136092776" lon="9.443324621875993"><ele>525.0</ele><time>2026-04-29T06:36:55.001Z</time></trkpt><trkpt lat="39.76682039464233" lon="9.443196099240508"><ele>525.0</ele><time>2026-04-29T06:36:56.001Z</time></trkpt><trkpt lat="39.766776754603235" lon="9.443080085764915"><ele>525.0</ele><time>2026-04-29T06:36:57.001Z</time></trkpt><trkpt lat="39.766719783586666" lon="9.442994407004095"><ele>525.0</ele><time>2026-04-29T06:36:58.001Z</time></trkpt><trkpt lat="39.76665209498479" lon="9.442913830251305"><ele>521.4</ele><time>2026-04-29T06:36:59.001Z</time></trkpt><trkpt lat="39.76657210326043" lon="9.442830726323425"><ele>517.8</ele><time>2026-04-29T06:37:00.001Z</time></trkpt><trkpt lat="39.76649882817133" lon="9.442741284497183"><ele>514.2</ele><time>2026-04-29T06:37:01.001Z</time></trkpt><trkpt lat="39.7664506037783" lon="9.442619214582498"><ele>510.6</ele><time>2026-04-29T06:37:02.001Z</time></trkpt><trkpt lat="39.76639968562517" lon="9.442495137860105"><ele>507.0</ele><time>2026-04-29T06:37:03.001Z</time></trkpt><trkpt lat="39.76634459055039" lon="9.44235949495916"><ele>507.0</ele><time>2026-04-29T06:37:04.001Z</time></trkpt><trkpt lat="39.76629259084382" lon="9.44223651414502"><ele>507.00000000000006</ele><time>2026-04-29T06:37:05.001Z</time></trkpt><trkpt lat="39.766246073436164" lon="9.44210287416795"><ele>507.00000000000006</ele><time>2026-04-29T06:37:06.001Z</time></trkpt><trkpt lat="39.76620433907763" lon="9.441978779934104"><ele>507.0</ele><time>2026-04-29T06:37:07.001Z</time></trkpt><trkpt lat="39.76617934943863" lon="9.441860471243045"><ele>507.0</ele><time>2026-04-29T06:37:08.001Z</time></trkpt><trkpt lat="39.766153032254614" lon="9.441736578652515"><ele>503.6</ele><time>2026-04-29T06:37:09Z</time></trkpt><trkpt lat="39.76614361533018" lon="9.441603960073138"><ele>500.20000000000005</ele><time>2026-04-29T06:37:10Z</time></trkpt><trkpt lat="39.76614137989543" lon="9.44147161497746"><ele>496.8</ele><time>2026-04-29T06:37:11Z</time></trkpt><trkpt lat="39.76613748263537" lon="9.441327348774804"><ele>493.4</ele><time>2026-04-29T06:37:12.001Z</time></trkpt><trkpt lat="39.76613881759944" lon="9.441201772729308"><ele>490.0</ele><time>2026-04-29T06:37:13.001Z</time></trkpt><trkpt lat="39.76615260522862" lon="9.441081801818344"><ele>490.00000000000006</ele><time>2026-04-29T06:37:14.001Z</time></trkpt><trkpt lat="39.76618493709592" lon="9.44097122540094"><ele>490.0</ele><time>2026-04-29T06:37:15Z</time></trkpt><trkpt lat="39.7662344270296" lon="9.440880496780256"><ele>490.0</ele><time>2026-04-29T06:37:16Z</time></trkpt><trkpt lat="39.7662760005399" lon="9.440806202237146"><ele>490.0</ele><time>2026-04-29T06:37:17Z</time></trkpt><trkpt lat="39.76632582921077" lon="9.440698158464462"><ele>490.00000000000006</ele><time>2026-04-29T06:37:18.001Z</time></trkpt><trkpt lat="39.7663616977369" lon="9.440614234889125"><ele>490.0</ele><time>2026-04-29T06:37:19.001Z</time></trkpt><trkpt lat="39.766348971274915" lon="9.440478835349918"><ele>489.2</ele><time>2026-04-29T06:37:21.001Z</time></trkpt><trkpt lat="39.76627080114894" lon="9.440379168357293"><ele>488.4</ele><time>2026-04-29T06:37:23.001Z</time></trkpt><trkpt lat="39.766200382344806" lon="9.440331556466097"><ele>487.6</ele><time>2026-04-29T06:37:24.001Z</time></trkpt><trkpt lat="39.766112220502336" lon="9.440268709147876"><ele>486.8</ele><time>2026-04-29T06:37:25.001Z</time></trkpt><trkpt lat="39.76602632950704" lon="9.440179352994493"><ele>486.0</ele><time>2026-04-29T06:37:26.001Z</time></trkpt><trkpt lat="39.76591760387507" lon="9.44008768913604"><ele>488.4</ele><time>2026-04-29T06:37:27.001Z</time></trkpt><trkpt lat="39.76582663701901" lon="9.440004994035702"><ele>490.8</ele><time>2026-04-29T06:37:28.001Z</time></trkpt><trkpt lat="39.76575061338234" lon="9.43993707092258"><ele>493.19999999999993</ele><time>2026-04-29T06:37:29.001Z</time></trkpt><trkpt lat="39.76569314544721" lon="9.43988326449897"><ele>495.59999999999997</ele><time>2026-04-29T06:37:30.001Z</time></trkpt><trkpt lat="39.76561528853325" lon="9.439821446982888"><ele>498.0</ele><time>2026-04-29T06:40:40Z</time></trkpt><trkpt lat="39.7655393289638" lon="9.439731856276456"><ele>498.0</ele><time>2026-04-29T06:40:42Z</time></trkpt><trkpt lat="39.765439455873405" lon="9.439661746493007"><ele>497.99999999999994</ele><time>2026-04-29T06:40:44Z</time></trkpt><trkpt lat="39.765348646819554" lon="9.439599422304296"><ele>497.99999999999994</ele><time>2026-04-29T06:40:46Z</time></trkpt><trkpt lat="39.76524313971029" lon="9.43959291168531"><ele>498.0</ele><time>2026-04-29T06:40:48Z</time></trkpt><trkpt lat="39.765177467486566" lon="9.439596909820379"><ele>498.0</ele><time>2026-04-29T06:40:49Z</time></trkpt><trkpt lat="39.765069288025565" lon="9.439597407591693"><ele>494.0</ele><time>2026-04-29T06:40:51Z</time></trkpt><trkpt lat="39.76496141619191" lon="9.439593296895142"><ele>489.99999999999994</ele><time>2026-04-29T06:40:53Z</time></trkpt><trkpt lat="39.764884301149785" lon="9.439571044229831"><ele>485.99999999999994</ele><time>2026-04-29T06:40:55Z</time></trkpt><trkpt lat="39.76479012117296" lon="9.439533670523291"><ele>482.0</ele><time>2026-04-29T06:40:57Z</time></trkpt><trkpt lat="39.764695777102" lon="9.439476065856049"><ele>478.0</ele><time>2026-04-29T06:40:59Z</time></trkpt><trkpt lat="39.76463914346808" lon="9.439412773997885"><ele>478.0</ele><time>2026-04-29T06:41:01Z</time></trkpt><trkpt lat="39.76457101628969" lon="9.439326239645832"><ele>477.99999999999994</ele><time>2026-04-29T06:41:03Z</time></trkpt><trkpt lat="39.76447757407007" lon="9.439209855343316"><ele>477.99999999999994</ele><time>2026-04-29T06:41:05Z</time></trkpt><trkpt lat="39.76441911387214" lon="9.439151727255425"><ele>478.0</ele><time>2026-04-29T06:41:06Z</time></trkpt><trkpt lat="39.764350833029674" lon="9.439094122320048"><ele>478.0</ele><time>2026-04-29T06:41:08Z</time></trkpt><trkpt lat="39.764238465763114" lon="9.439013955693317"><ele>480.00000000000006</ele><time>2026-04-29T06:41:10Z</time></trkpt><trkpt lat="39.76417737193362" lon="9.438980856320242"><ele>482.0</ele><time>2026-04-29T06:41:11Z</time></trkpt><trkpt lat="39.76410601096087" lon="9.438963167366875"><ele>484.0</ele><time>2026-04-29T06:41:13Z</time></trkpt><trkpt lat="39.76398174573" lon="9.43894565086058"><ele>486.0</ele><time>2026-04-29T06:41:15Z</time></trkpt><trkpt lat="39.763898039284435" lon="9.438906840342726"><ele>488.00000000000006</ele><time>2026-04-29T06:41:16.001Z</time></trkpt><trkpt lat="39.76381583508559" lon="9.438858621938698"><ele>490.0</ele><time>2026-04-29T06:41:17.001Z</time></trkpt><trkpt lat="39.763739856931885" lon="9.438827041846805"><ele>490.00000000000006</ele><time>2026-04-29T06:41:18.001Z</time></trkpt><trkpt lat="39.76363749112217" lon="9.438803042129441"><ele>490.0</ele><time>2026-04-29T06:41:20Z</time></trkpt><trkpt lat="39.76357552158593" lon="9.438769378848287"><ele>490.0</ele><time>2026-04-29T06:41:21Z</time></trkpt><trkpt lat="39.763521678724146" lon="9.438697110047865"><ele>490.0</ele><time>2026-04-29T06:41:22.001Z</time></trkpt><trkpt lat="39.76348882740146" lon="9.438616031510755"><ele>490.00000000000006</ele><time>2026-04-29T06:41:23Z</time></trkpt><trkpt lat="39.7634799985255" lon="9.438531237813171"><ele>490.0</ele><time>2026-04-29T06:41:24Z</time></trkpt><trkpt lat="39.76348941233657" lon="9.438447480934212"><ele>488.2</ele><time>2026-04-29T06:41:25Z</time></trkpt><trkpt lat="39.76352951590102" lon="9.43830556471444"><ele>486.4</ele><time>2026-04-29T06:41:27.001Z</time></trkpt><trkpt lat="39.76349933956931" lon="9.438225849300215"><ele>484.6</ele><time>2026-04-29T06:41:28Z</time></trkpt><trkpt lat="39.76344703064412" lon="9.43813412268516"><ele>482.8</ele><time>2026-04-29T06:41:29.001Z</time></trkpt><trkpt lat="39.76338228808726" lon="9.438044611135851"><ele>481.0</ele><time>2026-04-29T06:41:30.001Z</time></trkpt><trkpt lat="39.763304381443426" lon="9.437935680984953"><ele>478.20000000000005</ele><time>2026-04-29T06:41:31.001Z</time></trkpt><trkpt lat="39.76324574614501" lon="9.43784697177154"><ele>475.40000000000003</ele><time>2026-04-29T06:41:32.001Z</time></trkpt><trkpt lat="39.76318229831144" lon="9.437735985254356"><ele>472.6</ele><time>2026-04-29T06:41:34.001Z</time></trkpt><trkpt lat="39.76314854463424" lon="9.437587708245077"><ele>469.8</ele><time>2026-04-29T06:41:36.001Z</time></trkpt><trkpt lat="39.76317170388981" lon="9.437501193837718"><ele>467.0</ele><time>2026-04-29T06:41:37.001Z</time></trkpt><trkpt lat="39.76320534090816" lon="9.437411815387994"><ele>466.99999999999994</ele><time>2026-04-29T06:41:38.001Z</time></trkpt><trkpt lat="39.76325071922276" lon="9.437330709125018"><ele>467.0</ele><time>2026-04-29T06:41:39.001Z</time></trkpt><trkpt lat="39.76327370194823" lon="9.43724733665156"><ele>467.0</ele><time>2026-04-29T06:41:40.001Z</time></trkpt><trkpt lat="39.7632971224726" lon="9.437124924580294"><ele>467.0</ele><time>2026-04-29T06:41:42.001Z</time></trkpt><trkpt lat="39.76337156766721" lon="9.437087198280315"><ele>466.99999999999994</ele><time>2026-04-29T06:41:45.001Z</time></trkpt><trkpt lat="39.763402461028456" lon="9.437165401517131"><ele>467.0</ele><time>2026-04-29T06:41:47.001Z</time></trkpt><trkpt lat="39.763387671527575" lon="9.437253608681345"><ele>467.0</ele><time>2026-04-29T06:41:49.001Z</time></trkpt><trkpt lat="39.76334273747939" lon="9.437361685415034"><ele>467.00000000000006</ele><time>2026-04-29T06:41:51.001Z</time></trkpt><trkpt lat="39.763322500802104" lon="9.437482991114003"><ele>467.00000000000006</ele><time>2026-04-29T06:41:53.001Z</time></trkpt><trkpt lat="39.76339462330743" lon="9.43759486318224"><ele>467.0</ele><time>2026-04-29T06:41:55.001Z</time></trkpt><trkpt lat="39.76346556747318" lon="9.43764045226721"><ele>467.0</ele><time>2026-04-29T06:41:56.001Z</time></trkpt><trkpt lat="39.76357547959992" lon="9.437722689743438"><ele>465.8</ele><time>2026-04-29T06:41:58.001Z</time></trkpt><trkpt lat="39.76366922685771" lon="9.43779476624993"><ele>464.6</ele><time>2026-04-29T06:42:00.001Z</time></trkpt><trkpt lat="39.76374645620847" lon="9.43784445421056"><ele>463.40000000000003</ele><time>2026-04-29T06:42:02.001Z</time></trkpt><trkpt lat="39.76381705811454" lon="9.437908370015604"><ele>462.20000000000005</ele><time>2026-04-29T06:42:04.001Z</time></trkpt><trkpt lat="39.763872044563506" lon="9.438009119989243"><ele>461.0</ele><time>2026-04-29T06:42:06.001Z</time></trkpt><trkpt lat="39.76393629398939" lon="9.438132419738032"><ele>460.99999999999994</ele><time>2026-04-29T06:42:08.001Z</time></trkpt><trkpt lat="39.7640323280709" lon="9.438147662058421"><ele>461.0</ele><time>2026-04-29T06:42:10.001Z</time></trkpt><trkpt lat="39.76410304659632" lon="9.438122423429533"><ele>461.0</ele><time>2026-04-29T06:42:11.001Z</time></trkpt><trkpt lat="39.764166969063474" lon="9.438079559844848"><ele>461.0</ele><time>2026-04-29T06:42:12.001Z</time></trkpt><trkpt lat="39.76424067651525" lon="9.43803686471578"><ele>460.99999999999994</ele><time>2026-04-29T06:42:13.001Z</time></trkpt><trkpt lat="39.76432693009598" lon="9.438025300270404"><ele>461.0</ele><time>2026-04-29T06:42:14.001Z</time></trkpt><trkpt lat="39.76440724982281" lon="9.438028626589356"><ele>458.66666666666663</ele><time>2026-04-29T06:42:15.001Z</time></trkpt><trkpt lat="39.76447243013591" lon="9.438040917557426"><ele>456.3333333333333</ele><time>2026-04-29T06:42:16.001Z</time></trkpt><trkpt lat="39.76454198543106" lon="9.438066691671057"><ele>454.0</ele><time>2026-04-29T06:42:17.001Z</time></trkpt><trkpt lat="39.76461669156716" lon="9.438121997532726"><ele>451.66666666666663</ele><time>2026-04-29T06:42:18.001Z</time></trkpt><trkpt lat="39.76468541444809" lon="9.438190746355392"><ele>449.3333333333333</ele><time>2026-04-29T06:42:19.001Z</time></trkpt><trkpt lat="39.764752515678715" lon="9.438261907940504"><ele>447.0</ele><time>2026-04-29T06:42:20.001Z</time></trkpt><trkpt lat="39.76481413449787" lon="9.438323952171713"><ele>447.0</ele><time>2026-04-29T06:42:21.001Z</time></trkpt><trkpt lat="39.76487737728589" lon="9.438378845754201"><ele>447.00000000000006</ele><time>2026-04-29T06:42:22.001Z</time></trkpt><trkpt lat="39.76499323849091" lon="9.438417097382143"><ele>447.00000000000006</ele><time>2026-04-29T06:42:24.001Z</time></trkpt><trkpt lat="39.765120506097134" lon="9.438355533754695"><ele>447.0</ele><time>2026-04-29T06:42:26.001Z</time></trkpt><trkpt lat="39.765192886517525" lon="9.43831171671566"><ele>447.0</ele><time>2026-04-29T06:42:27.001Z</time></trkpt><trkpt lat="39.76527555894349" lon="9.438273224270038"><ele>446.0</ele><time>2026-04-29T06:42:28.001Z</time></trkpt><trkpt lat="39.7653668176631" lon="9.438255416013693"><ele>445.0</ele><time>2026-04-29T06:42:29.001Z</time></trkpt><trkpt lat="39.765453616103535" lon="9.438244007365533"><ele>444.0</ele><time>2026-04-29T06:42:30.001Z</time></trkpt><trkpt lat="39.76553356016375" lon="9.438237142491213"><ele>443.0</ele><time>2026-04-29T06:42:31.001Z</time></trkpt><trkpt lat="39.765614271633176" lon="9.438224012970867"><ele>442.0</ele><time>2026-04-29T06:42:32.001Z</time></trkpt><trkpt lat="39.76569304166689" lon="9.438215045852994"><ele>441.0</ele><time>2026-04-29T06:42:33.001Z</time></trkpt><trkpt lat="39.76576940012854" lon="9.438216583793231"><ele>441.0</ele><time>2026-04-29T06:42:34.001Z</time></trkpt><trkpt lat="39.76584662030784" lon="9.438231516385295"><ele>441.0</ele><time>2026-04-29T06:42:35.001Z</time></trkpt><trkpt lat="39.76591116895635" lon="9.438251609474015"><ele>441.0</ele><time>2026-04-29T06:42:36.001Z</time></trkpt><trkpt lat="39.76601716760341" lon="9.438259617123217"><ele>441.0</ele><time>2026-04-29T06:42:38.001Z</time></trkpt><trkpt lat="39.76616236161538" lon="9.4382765080083"><ele>441.0</ele><time>2026-04-29T06:42:40.001Z</time></trkpt><trkpt lat="39.76624495427399" lon="9.438298975569268"><ele>440.85714285714283</ele><time>2026-04-29T06:42:41.001Z</time></trkpt><trkpt lat="39.76631622039782" lon="9.4383126582278"><ele>440.7142857142857</ele><time>2026-04-29T06:42:42.001Z</time></trkpt><trkpt lat="39.76640747146583" lon="9.438277639158898"><ele>440.57142857142856</ele><time>2026-04-29T06:42:44.001Z</time></trkpt><trkpt lat="39.76643500375245" lon="9.438180739497044"><ele>440.42857142857144</ele><time>2026-04-29T06:42:46.001Z</time></trkpt><trkpt lat="39.76645811483192" lon="9.438098312728382"><ele>440.2857142857143</ele><time>2026-04-29T06:42:47.001Z</time></trkpt><trkpt lat="39.766480783327204" lon="9.438014238733988"><ele>440.1428571428571</ele><time>2026-04-29T06:42:48.001Z</time></trkpt><trkpt lat="39.766508073780045" lon="9.437936115008133"><ele>440.0</ele><time>2026-04-29T06:42:49.001Z</time></trkpt><trkpt lat="39.766598659419564" lon="9.437811987524523"><ele>436.16666666666663</ele><time>2026-04-29T06:42:51.001Z</time></trkpt><trkpt lat="39.7666629009204" lon="9.43778860947797"><ele>432.3333333333333</ele><time>2026-04-29T06:42:52.001Z</time></trkpt><trkpt lat="39.766737762294476" lon="9.437786930430894"><ele>428.5</ele><time>2026-04-29T06:42:53.001Z</time></trkpt><trkpt lat="39.76681390021508" lon="9.437785483751265"><ele>424.66666666666663</ele><time>2026-04-29T06:42:54.001Z</time></trkpt><trkpt lat="39.76689839137225" lon="9.437770134183022"><ele>420.8333333333333</ele><time>2026-04-29T06:42:55.001Z</time></trkpt><trkpt lat="39.76697017444667" lon="9.437738819184212"><ele>417.0</ele><time>2026-04-29T06:42:56.001Z</time></trkpt><trkpt lat="39.76704290759659" lon="9.437695887876068"><ele>417.0</ele><time>2026-04-29T06:42:57.001Z</time></trkpt><trkpt lat="39.76711899731633" lon="9.437646555343708"><ele>417.0</ele><time>2026-04-29T06:42:58.001Z</time></trkpt><trkpt lat="39.767197260582385" lon="9.437592725090303"><ele>417.0</ele><time>2026-04-29T06:42:59.001Z</time></trkpt><trkpt lat="39.76727435780808" lon="9.437540518577961"><ele>417.0</ele><time>2026-04-29T06:43:00.001Z</time></trkpt><trkpt lat="39.767351468369604" lon="9.43749817786875"><ele>417.0</ele><time>2026-04-29T06:43:01.001Z</time></trkpt><trkpt lat="39.76742311328567" lon="9.437475995452182"><ele>417.0</ele><time>2026-04-29T06:43:02.001Z</time></trkpt><trkpt lat="39.76748784525588" lon="9.437479297030626"><ele>417.0</ele><time>2026-04-29T06:43:03.001Z</time></trkpt><trkpt lat="39.76755157875806" lon="9.437499044228984"><ele>417.0</ele><time>2026-04-29T06:43:05.001Z</time></trkpt><trkpt lat="39.767635236353144" lon="9.437525416257083"><ele>417.0</ele><time>2026-04-29T06:43:09.001Z</time></trkpt><trkpt lat="39.76771931032124" lon="9.437554616380536"><ele>417.0</ele><time>2026-04-29T06:43:23.001Z</time></trkpt><trkpt lat="39.7677928513569" lon="9.437598400181221"><ele>417.0</ele><time>2026-04-29T06:43:25Z</time></trkpt><trkpt lat="39.767923002831495" lon="9.437669827407593"><ele>413.8333333333333</ele><time>2026-04-29T06:43:27Z</time></trkpt><trkpt lat="39.76801508828367" lon="9.437707197232095"><ele>410.66666666666663</ele><time>2026-04-29T06:43:28.001Z</time></trkpt><trkpt lat="39.76810236633212" lon="9.437747237472317"><ele>407.5</ele><time>2026-04-29T06:43:29Z</time></trkpt><trkpt lat="39.7681666623814" lon="9.437785202722827"><ele>404.3333333333333</ele><time>2026-04-29T06:43:30Z</time></trkpt><trkpt lat="39.768236349255716" lon="9.437829560920816"><ele>401.16666666666663</ele><time>2026-04-29T06:43:33Z</time></trkpt><trkpt lat="39.768318171474746" lon="9.437881821432272"><ele>398.0</ele><time>2026-04-29T06:43:35Z</time></trkpt><trkpt lat="39.76840105886309" lon="9.437922500677976"><ele>396.8333333333333</ele><time>2026-04-29T06:43:37Z</time></trkpt><trkpt lat="39.768495539460176" lon="9.437969851145434"><ele>395.66666666666663</ele><time>2026-04-29T06:43:39Z</time></trkpt><trkpt lat="39.76858054045964" lon="9.438017188807212"><ele>394.5</ele><time>2026-04-29T06:43:41Z</time></trkpt><trkpt lat="39.76865955701845" lon="9.438088632018236"><ele>393.33333333333337</ele><time>2026-04-29T06:43:43Z</time></trkpt><trkpt lat="39.76872309565486" lon="9.438144309755657"><ele>392.1666666666667</ele><time>2026-04-29T06:43:45Z</time></trkpt><trkpt lat="39.768794873818145" lon="9.438108082934098"><ele>391.0</ele><time>2026-04-29T06:43:47Z</time></trkpt><trkpt lat="39.76879993758465" lon="9.438017993925984"><ele>392.1666666666667</ele><time>2026-04-29T06:43:49Z</time></trkpt><trkpt lat="39.76875125258646" lon="9.437948375668842"><ele>393.33333333333337</ele><time>2026-04-29T06:44:04Z</time></trkpt><trkpt lat="39.76866237113376" lon="9.437852913210873"><ele>394.5</ele><time>2026-04-29T06:44:06Z</time></trkpt><trkpt lat="39.768609969849834" lon="9.437803142132925"><ele>395.66666666666663</ele><time>2026-04-29T06:44:07Z</time></trkpt><trkpt lat="39.768565577683155" lon="9.437730865903708"><ele>396.8333333333333</ele><time>2026-04-29T06:44:08Z</time></trkpt><trkpt lat="39.76845185203504" lon="9.437682999453802"><ele>398.0</ele><time>2026-04-29T06:44:10Z</time></trkpt><trkpt lat="39.76839408875657" lon="9.437645690709415"><ele>397.99999999999994</ele><time>2026-04-29T06:44:11Z</time></trkpt><trkpt lat="39.76833155075968" lon="9.43759947147316"><ele>398.0</ele><time>2026-04-29T06:44:12Z</time></trkpt><trkpt lat="39.76825026778509" lon="9.437579741397112"><ele>398.0</ele><time>2026-04-29T06:44:13Z</time></trkpt><trkpt lat="39.76818138527994" lon="9.4375085410348"><ele>398.0</ele><time>2026-04-29T06:44:14Z</time></trkpt><trkpt lat="39.768111092450575" lon="9.437439341407103"><ele>397.99999999999994</ele><time>2026-04-29T06:44:15Z</time></trkpt><trkpt lat="39.768036949519605" lon="9.43737469425241"><ele>398.0</ele><time>2026-04-29T06:44:16Z</time></trkpt><trkpt lat="39.76796686120032" lon="9.437322550169313"><ele>397.99999999999994</ele><time>2026-04-29T06:44:17Z</time></trkpt><trkpt lat="39.7678921015706" lon="9.437263787160044"><ele>398.0</ele><time>2026-04-29T06:44:18Z</time></trkpt><trkpt lat="39.767842592102184" lon="9.4372047732347"><ele>398.0</ele><time>2026-04-29T06:44:19Z</time></trkpt><trkpt lat="39.76779916099915" lon="9.437142423433812"><ele>398.0</ele><time>2026-04-29T06:44:20Z</time></trkpt><trkpt lat="39.76774036568271" lon="9.437074716034726"><ele>397.99999999999994</ele><time>2026-04-29T06:44:21Z</time></trkpt><trkpt lat="39.76767089689623" lon="9.437007871114382"><ele>398.0</ele><time>2026-04-29T06:44:22.001Z</time></trkpt><trkpt lat="39.7675949073028" lon="9.436921251314718"><ele>395.49999999999994</ele><time>2026-04-29T06:44:23.001Z</time></trkpt><trkpt lat="39.7675241839876" lon="9.436828191565807"><ele>393.0</ele><time>2026-04-29T06:44:24.001Z</time></trkpt><trkpt lat="39.76746423002446" lon="9.436759120124965"><ele>390.5</ele><time>2026-04-29T06:44:25.001Z</time></trkpt><trkpt lat="39.767390449841535" lon="9.436705812629821"><ele>388.0</ele><time>2026-04-29T06:44:26.001Z</time></trkpt><trkpt lat="39.76730483502521" lon="9.436669759099054"><ele>385.5</ele><time>2026-04-29T06:44:27.001Z</time></trkpt><trkpt lat="39.76721373213663" lon="9.436663900699916"><ele>383.0</ele><time>2026-04-29T06:44:28.001Z</time></trkpt><trkpt lat="39.767122592336605" lon="9.436678723557542"><ele>383.0</ele><time>2026-04-29T06:44:29.001Z</time></trkpt><trkpt lat="39.7670527167276" lon="9.436687994681138"><ele>383.0</ele><time>2026-04-29T06:44:30.001Z</time></trkpt><trkpt lat="39.766983416197526" lon="9.436668426681551"><ele>383.0</ele><time>2026-04-29T06:44:31.001Z</time></trkpt><trkpt lat="39.76691816077157" lon="9.436616880464422"><ele>383.0</ele><time>2026-04-29T06:44:32.001Z</time></trkpt><trkpt lat="39.76685767594418" lon="9.436538579779624"><ele>383.0</ele><time>2026-04-29T06:44:33.001Z</time></trkpt><trkpt lat="39.76679499676723" lon="9.436463708994612"><ele>383.0</ele><time>2026-04-29T06:44:34.001Z</time></trkpt><trkpt lat="39.76672776285023" lon="9.436427091808513"><ele>383.83333333333337</ele><time>2026-04-29T06:44:35.001Z</time></trkpt><trkpt lat="39.76666120834401" lon="9.436419548011434"><ele>384.6666666666667</ele><time>2026-04-29T06:44:36.001Z</time></trkpt><trkpt lat="39.76658914175332" lon="9.436442567663295"><ele>385.5</ele><time>2026-04-29T06:44:37.001Z</time></trkpt><trkpt lat="39.76651206804052" lon="9.43648304605569"><ele>386.33333333333337</ele><time>2026-04-29T06:44:38.001Z</time></trkpt><trkpt lat="39.76644781264398" lon="9.436538797255281"><ele>387.1666666666667</ele><time>2026-04-29T06:44:39.001Z</time></trkpt><trkpt lat="39.76639476700211" lon="9.436603495446505"><ele>388.0</ele><time>2026-04-29T06:44:40.001Z</time></trkpt><trkpt lat="39.766283636862376" lon="9.436622350963736"><ele>388.00000000000006</ele><time>2026-04-29T06:44:42.001Z</time></trkpt><trkpt lat="39.76620026303114" lon="9.436504845899595"><ele>388.0</ele><time>2026-04-29T06:44:44.001Z</time></trkpt><trkpt lat="39.76617651859634" lon="9.436421184144141"><ele>388.0</ele><time>2026-04-29T06:44:45.001Z</time></trkpt><trkpt lat="39.766170870682416" lon="9.436318800545635"><ele>388.0</ele><time>2026-04-29T06:44:46.001Z</time></trkpt><trkpt lat="39.76617664124922" lon="9.436216421667618"><ele>388.00000000000006</ele><time>2026-04-29T06:44:47.001Z</time></trkpt><trkpt lat="39.766175661101464" lon="9.436121388186773"><ele>388.0</ele><time>2026-04-29T06:44:48.001Z</time></trkpt><trkpt lat="39.76613051896329" lon="9.43603182799377"><ele>385.79999999999995</ele><time>2026-04-29T06:44:49.001Z</time></trkpt><trkpt lat="39.7660696817642" lon="9.435907074360854"><ele>383.6</ele><time>2026-04-29T06:44:50.001Z</time></trkpt><trkpt lat="39.76600540785949" lon="9.435791425613234"><ele>381.4</ele><time>2026-04-29T06:44:51.001Z</time></trkpt><trkpt lat="39.765935202895875" lon="9.435696912661918"><ele>379.20000000000005</ele><time>2026-04-29T06:44:52.001Z</time></trkpt><trkpt lat="39.765850937464286" lon="9.435614656286242"><ele>377.0</ele><time>2026-04-29T06:44:53.001Z</time></trkpt><trkpt lat="39.76575763298683" lon="9.435546787434514"><ele>377.0</ele><time>2026-04-29T06:44:54.001Z</time></trkpt><trkpt lat="39.76566635328297" lon="9.43549242447506"><ele>377.0</ele><time>2026-04-29T06:44:55.001Z</time></trkpt><trkpt lat="39.76558277751732" lon="9.435460559048204"><ele>377.0</ele><time>2026-04-29T06:44:56.001Z</time></trkpt><trkpt lat="39.76551657243223" lon="9.435445623178012"><ele>377.0</ele><time>2026-04-29T06:44:57.001Z</time></trkpt><trkpt lat="39.76544550511658" lon="9.435348456192374"><ele>377.0</ele><time>2026-04-29T06:44:59.001Z</time></trkpt><trkpt lat="39.76543625520149" lon="9.435258670697866"><ele>377.0</ele><time>2026-04-29T06:45:00.001Z</time></trkpt><trkpt lat="39.765453433859044" lon="9.435160115481809"><ele>374.5</ele><time>2026-04-29T06:45:01.001Z</time></trkpt><trkpt lat="39.76550211240733" lon="9.43507545140695"><ele>372.0</ele><time>2026-04-29T06:45:02.001Z</time></trkpt><trkpt lat="39.765552037764245" lon="9.434968925272436"><ele>369.5</ele><time>2026-04-29T06:45:03.001Z</time></trkpt><trkpt lat="39.76558467475395" lon="9.43486532608971"><ele>367.0</ele><time>2026-04-29T06:45:04.001Z</time></trkpt><trkpt lat="39.76559029996347" lon="9.434770252827114"><ele>364.5</ele><time>2026-04-29T06:45:05.001Z</time></trkpt><trkpt lat="39.765561129467365" lon="9.43466695796197"><ele>362.0</ele><time>2026-04-29T06:45:06.001Z</time></trkpt><trkpt lat="39.76553055564358" lon="9.434553122686292"><ele>361.6</ele><time>2026-04-29T06:45:07.001Z</time></trkpt><trkpt lat="39.765509545944674" lon="9.434433621452802"><ele>361.20000000000005</ele><time>2026-04-29T06:45:08.001Z</time></trkpt><trkpt lat="39.76550151724893" lon="9.434308131517875"><ele>360.8</ele><time>2026-04-29T06:45:09.001Z</time></trkpt><trkpt lat="39.76552198035003" lon="9.434179653296638"><ele>360.4</ele><time>2026-04-29T06:45:10.001Z</time></trkpt><trkpt lat="39.76554680015625" lon="9.434054424921149"><ele>360.0</ele><time>2026-04-29T06:45:11.001Z</time></trkpt><trkpt lat="39.76556953060425" lon="9.433927607430826"><ele>362.0</ele><time>2026-04-29T06:45:12.001Z</time></trkpt><trkpt lat="39.765610150593574" lon="9.433803718172067"><ele>364.0</ele><time>2026-04-29T06:45:13.001Z</time></trkpt><trkpt lat="39.76564413793493" lon="9.433690395183499"><ele>366.0</ele><time>2026-04-29T06:45:14.001Z</time></trkpt><trkpt lat="39.765706115078224" lon="9.433584180094673"><ele>368.0</ele><time>2026-04-29T06:45:15.001Z</time></trkpt><trkpt lat="39.76577720788397" lon="9.433475675643201"><ele>370.0</ele><time>2026-04-29T06:45:16.001Z</time></trkpt><trkpt lat="39.76584873776339" lon="9.43337813639795"><ele>370.0</ele><time>2026-04-29T06:45:17.001Z</time></trkpt><trkpt lat="39.76592563494968" lon="9.433309334900192"><ele>370.0</ele><time>2026-04-29T06:45:18.001Z</time></trkpt><trkpt lat="39.76599404501647" lon="9.433262744964761"><ele>370.0</ele><time>2026-04-29T06:45:19.001Z</time></trkpt><trkpt lat="39.7660684443352" lon="9.43323288952957"><ele>370.0</ele><time>2026-04-29T06:45:20.001Z</time></trkpt><trkpt lat="39.76614009072044" lon="9.433218273815491"><ele>370.0</ele><time>2026-04-29T06:45:21.001Z</time></trkpt><trkpt lat="39.766231956267525" lon="9.43319168712121"><ele>370.0</ele><time>2026-04-29T06:45:23.001Z</time></trkpt><trkpt lat="39.76630520708479" lon="9.433203947516638"><ele>368.5</ele><time>2026-04-29T06:45:25.001Z</time></trkpt><trkpt lat="39.766340547630094" lon="9.433320792889498"><ele>367.0</ele><time>2026-04-29T06:45:27.001Z</time></trkpt><trkpt lat="39.76633510108105" lon="9.433415832422561"><ele>365.5</ele><time>2026-04-29T06:45:28.001Z</time></trkpt><trkpt lat="39.76634844672432" lon="9.433516578399942"><ele>364.0</ele><time>2026-04-29T06:45:29.001Z</time></trkpt><trkpt lat="39.766368298692825" lon="9.433626434861166"><ele>362.5</ele><time>2026-04-29T06:45:30.001Z</time></trkpt><trkpt lat="39.766390404621724" lon="9.433736079123712"><ele>361.0</ele><time>2026-04-29T06:45:31.001Z</time></trkpt><trkpt lat="39.766432785239274" lon="9.433855909281316"><ele>360.6</ele><time>2026-04-29T06:45:32Z</time></trkpt><trkpt lat="39.766456600787734" lon="9.433974613302293"><ele>360.20000000000005</ele><time>2026-04-29T06:45:33Z</time></trkpt><trkpt lat="39.766481791097625" lon="9.43408990751539"><ele>359.79999999999995</ele><time>2026-04-29T06:45:34Z</time></trkpt><trkpt lat="39.76651880631081" lon="9.43419842378921"><ele>359.4</ele><time>2026-04-29T06:45:35.001Z</time></trkpt><trkpt lat="39.766552689861186" lon="9.434311197366156"><ele>359.0</ele><time>2026-04-29T06:45:36.001Z</time></trkpt><trkpt lat="39.766617661742934" lon="9.434411603818091"><ele>359.0</ele><time>2026-04-29T06:45:37Z</time></trkpt><trkpt lat="39.76670806250407" lon="9.434474718245742"><ele>359.0</ele><time>2026-04-29T06:45:38Z</time></trkpt><trkpt lat="39.766798046030466" lon="9.434530330809352"><ele>359.0</ele><time>2026-04-29T06:45:39Z</time></trkpt><trkpt lat="39.76689487255846" lon="9.434576411391046"><ele>359.0</ele><time>2026-04-29T06:45:40Z</time></trkpt><trkpt lat="39.76699680814639" lon="9.434609884209854"><ele>359.0</ele><time>2026-04-29T06:45:41Z</time></trkpt><trkpt lat="39.76710385366893" lon="9.43463099000387"><ele>361.0</ele><time>2026-04-29T06:45:42Z</time></trkpt><trkpt lat="39.76721228558828" lon="9.434633652875274"><ele>363.0</ele><time>2026-04-29T06:45:43Z</time></trkpt><trkpt lat="39.76732048033877" lon="9.434612127288077"><ele>365.0</ele><time>2026-04-29T06:45:44Z</time></trkpt><trkpt lat="39.76742866162283" lon="9.4345785685798"><ele>367.0</ele><time>2026-04-29T06:45:45Z</time></trkpt><trkpt lat="39.76753757074174" lon="9.43454055601522"><ele>369.0</ele><time>2026-04-29T06:45:46Z</time></trkpt><trkpt lat="39.767643924733854" lon="9.434502117004863"><ele>374.2</ele><time>2026-04-29T06:45:47Z</time></trkpt><trkpt lat="39.7677493628338" lon="9.434458001037463"><ele>379.4</ele><time>2026-04-29T06:45:48Z</time></trkpt><trkpt lat="39.76784422559285" lon="9.434396909571419"><ele>384.6</ele><time>2026-04-29T06:45:49Z</time></trkpt><trkpt lat="39.76793140551514" lon="9.434320101477114"><ele>389.8</ele><time>2026-04-29T06:45:50Z</time></trkpt><trkpt lat="39.76801430162733" lon="9.434227860206365"><ele>395.0</ele><time>2026-04-29T06:45:51Z</time></trkpt><trkpt lat="39.76808337270244" lon="9.434125031284056"><ele>395.0</ele><time>2026-04-29T06:45:52Z</time></trkpt><trkpt lat="39.76814318877551" lon="9.434008795555865"><ele>395.0</ele><time>2026-04-29T06:45:53Z</time></trkpt><trkpt lat="39.76819029143402" lon="9.433877583543328"><ele>395.0</ele><time>2026-04-29T06:45:54Z</time></trkpt><trkpt lat="39.76822435840582" lon="9.433732791904937"><ele>395.0</ele><time>2026-04-29T06:45:55Z</time></trkpt><trkpt lat="39.76824226504617" lon="9.433578808723858"><ele>394.5</ele><time>2026-04-29T06:45:56Z</time></trkpt><trkpt lat="39.768246283804714" lon="9.433419632172535"><ele>394.0</ele><time>2026-04-29T06:45:57Z</time></trkpt><trkpt lat="39.76826305023127" lon="9.433254736235321"><ele>393.5</ele><time>2026-04-29T06:45:58Z</time></trkpt><trkpt lat="39.7682554506889" lon="9.433100201835583"><ele>393.0</ele><time>2026-04-29T06:45:59Z</time></trkpt><trkpt lat="39.76823316166304" lon="9.432946084709423"><ele>396.5</ele><time>2026-04-29T06:46:00Z</time></trkpt><trkpt lat="39.76819091129636" lon="9.432804367705382"><ele>400.0</ele><time>2026-04-29T06:46:01Z</time></trkpt><trkpt lat="39.7681340784614" lon="9.432672674418997"><ele>403.5</ele><time>2026-04-29T06:46:02.001Z</time></trkpt><trkpt lat="39.76806842144597" lon="9.432533875416548"><ele>407.0</ele><time>2026-04-29T06:46:03.001Z</time></trkpt><trkpt lat="39.767995617771916" lon="9.4323962478559"><ele>407.0</ele><time>2026-04-29T06:46:04.001Z</time></trkpt><trkpt lat="39.76793920747175" lon="9.432257470661627"><ele>407.0</ele><time>2026-04-29T06:46:05.001Z</time></trkpt><trkpt lat="39.76788763532937" lon="9.432114480006158"><ele>407.0</ele><time>2026-04-29T06:46:06.001Z</time></trkpt><trkpt lat="39.7678322693433" lon="9.431981622909714"><ele>407.0</ele><time>2026-04-29T06:46:07.001Z</time></trkpt><trkpt lat="39.767773562298295" lon="9.431846834207972"><ele>409.40000000000003</ele><time>2026-04-29T06:46:08.001Z</time></trkpt><trkpt lat="39.7677069457469" lon="9.431722771620654"><ele>411.8</ele><time>2026-04-29T06:46:09.001Z</time></trkpt><trkpt lat="39.767626012109275" lon="9.431608405348733"><ele>414.2</ele><time>2026-04-29T06:46:10.001Z</time></trkpt><trkpt lat="39.76755263419747" lon="9.431493029822263"><ele>416.6</ele><time>2026-04-29T06:46:11.001Z</time></trkpt><trkpt lat="39.76750210343587" lon="9.431388795385997"><ele>419.0</ele><time>2026-04-29T06:46:12.001Z</time></trkpt><trkpt lat="39.76747319858226" lon="9.431285448909746"><ele>417.49999999999994</ele><time>2026-04-29T06:46:13.001Z</time></trkpt><trkpt lat="39.7674680924183" lon="9.431180288481345"><ele>416.0</ele><time>2026-04-29T06:46:14.001Z</time></trkpt><trkpt lat="39.76748683229536" lon="9.431070665282931"><ele>414.5</ele><time>2026-04-29T06:46:15.001Z</time></trkpt><trkpt lat="39.767526602766466" lon="9.43097245869363"><ele>413.0</ele><time>2026-04-29T06:46:16.001Z</time></trkpt><trkpt lat="39.76759323235478" lon="9.430892604514614"><ele>411.49999999999994</ele><time>2026-04-29T06:46:17.001Z</time></trkpt><trkpt lat="39.76767429361032" lon="9.430831650981045"><ele>410.0</ele><time>2026-04-29T06:46:18.001Z</time></trkpt><trkpt lat="39.7677637521189" lon="9.430782484571147"><ele>409.99999999999994</ele><time>2026-04-29T06:46:19.001Z</time></trkpt><trkpt lat="39.767861998532275" lon="9.4307446124671"><ele>410.0</ele><time>2026-04-29T06:46:20.001Z</time></trkpt><trkpt lat="39.767963153185256" lon="9.430714788706432"><ele>410.0</ele><time>2026-04-29T06:46:21.001Z</time></trkpt><trkpt lat="39.76804668797909" lon="9.430678362983059"><ele>410.0</ele><time>2026-04-29T06:46:22.001Z</time></trkpt><trkpt lat="39.76810729787315" lon="9.430621222641618"><ele>409.99999999999994</ele><time>2026-04-29T06:46:23.001Z</time></trkpt><trkpt lat="39.76814557715919" lon="9.430549598407943"><ele>410.0</ele><time>2026-04-29T06:46:24.001Z</time></trkpt><trkpt lat="39.768165931814096" lon="9.430461042623257"><ele>408.4</ele><time>2026-04-29T06:46:25.001Z</time></trkpt><trkpt lat="39.76817410755091" lon="9.430351748945538"><ele>406.8</ele><time>2026-04-29T06:46:26.001Z</time></trkpt><trkpt lat="39.76817825377713" lon="9.430220195999569"><ele>405.20000000000005</ele><time>2026-04-29T06:46:27.001Z</time></trkpt><trkpt lat="39.76818871208188" lon="9.430074231204243"><ele>403.6</ele><time>2026-04-29T06:46:28.001Z</time></trkpt><trkpt lat="39.768208710766515" lon="9.429927005404325"><ele>402.0</ele><time>2026-04-29T06:46:29.001Z</time></trkpt><trkpt lat="39.76824331532818" lon="9.429776071261017"><ele>400.5</ele><time>2026-04-29T06:46:30.001Z</time></trkpt><trkpt lat="39.768286664600765" lon="9.42962101681506"><ele>399.0</ele><time>2026-04-29T06:46:31.001Z</time></trkpt><trkpt lat="39.768334772635214" lon="9.429454167283774"><ele>397.5</ele><time>2026-04-29T06:46:32.001Z</time></trkpt><trkpt lat="39.76837915612963" lon="9.429289514734636"><ele>396.0</ele><time>2026-04-29T06:46:33.001Z</time></trkpt><trkpt lat="39.76841549055815" lon="9.429130724650754"><ele>396.0</ele><time>2026-04-29T06:46:34.001Z</time></trkpt><trkpt lat="39.76845296957828" lon="9.428970169478147"><ele>396.0</ele><time>2026-04-29T06:46:35.001Z</time></trkpt><trkpt lat="39.768486055336844" lon="9.428813316228332"><ele>396.0</ele><time>2026-04-29T06:46:36.001Z</time></trkpt><trkpt lat="39.76852021249785" lon="9.42868241341818"><ele>396.0</ele><time>2026-04-29T06:46:37.001Z</time></trkpt><trkpt lat="39.768559825732865" lon="9.42858403238509"><ele>396.0</ele><time>2026-04-29T06:46:38.001Z</time></trkpt><trkpt lat="39.76864659101778" lon="9.428506854132454"><ele>396.8</ele><time>2026-04-29T06:46:40.001Z</time></trkpt><trkpt lat="39.76874231193938" lon="9.428545932806509"><ele>397.6</ele><time>2026-04-29T06:46:42.001Z</time></trkpt><trkpt lat="39.76878415187542" lon="9.428693032344585"><ele>398.4</ele><time>2026-04-29T06:46:44.001Z</time></trkpt><trkpt lat="39.76878633452543" lon="9.428789298017998"><ele>399.2</ele><time>2026-04-29T06:46:45.001Z</time></trkpt><trkpt lat="39.768762498155645" lon="9.428893938923272"><ele>400.0</ele><time>2026-04-29T06:46:46.001Z</time></trkpt><trkpt lat="39.76874686641568" lon="9.429010973953309"><ele>402.83333333333337</ele><time>2026-04-29T06:46:47.001Z</time></trkpt><trkpt lat="39.768727502922275" lon="9.429126283933835"><ele>405.6666666666667</ele><time>2026-04-29T06:46:48.001Z</time></trkpt><trkpt lat="39.76870526497074" lon="9.429242695789839"><ele>408.5</ele><time>2026-04-29T06:46:49.001Z</time></trkpt><trkpt lat="39.76868414204972" lon="9.429347343578739"><ele>411.33333333333337</ele><time>2026-04-29T06:46:50.001Z</time></trkpt><trkpt lat="39.768661955152645" lon="9.429459180265038"><ele>414.1666666666667</ele><time>2026-04-29T06:46:51.001Z</time></trkpt><trkpt lat="39.76864468091448" lon="9.429564782105036"><ele>417.0</ele><time>2026-04-29T06:46:52.001Z</time></trkpt><trkpt lat="39.76863775508291" lon="9.42965171614565"><ele>419.20000000000005</ele><time>2026-04-29T06:46:53.001Z</time></trkpt><trkpt lat="39.76866277545346" lon="9.429741194269276"><ele>421.4</ele><time>2026-04-29T06:46:54.001Z</time></trkpt><trkpt lat="39.768745272430046" lon="9.429855648418055"><ele>423.59999999999997</ele><time>2026-04-29T06:46:56.001Z</time></trkpt><trkpt lat="39.76886056012863" lon="9.429847853179515"><ele>425.79999999999995</ele><time>2026-04-29T06:46:58.001Z</time></trkpt><trkpt lat="39.768943153470936" lon="9.429732791601182"><ele>428.0</ele><time>2026-04-29T06:47:00.001Z</time></trkpt><trkpt lat="39.768975540060694" lon="9.429652439270074"><ele>426.16666666666663</ele><time>2026-04-29T06:47:01.001Z</time></trkpt><trkpt lat="39.76902223967953" lon="9.429561815055335"><ele>424.3333333333333</ele><time>2026-04-29T06:47:02.001Z</time></trkpt><trkpt lat="39.76903260755349" lon="9.429446071894782"><ele>422.5</ele><time>2026-04-29T06:47:03.001Z</time></trkpt><trkpt lat="39.76905981204153" lon="9.42933801614568"><ele>420.66666666666663</ele><time>2026-04-29T06:47:04.001Z</time></trkpt><trkpt lat="39.76908386374705" lon="9.429226097604817"><ele>418.8333333333333</ele><time>2026-04-29T06:47:05.001Z</time></trkpt><trkpt lat="39.7691190856216" lon="9.429119048026864"><ele>417.0</ele><time>2026-04-29T06:47:06.001Z</time></trkpt><trkpt lat="39.769165076382386" lon="9.429021251248757"><ele>417.0</ele><time>2026-04-29T06:47:07.001Z</time></trkpt><trkpt lat="39.76921807105796" lon="9.428939859625784"><ele>417.0</ele><time>2026-04-29T06:47:08.001Z</time></trkpt><trkpt lat="39.76927870166026" lon="9.428896605877938"><ele>417.0</ele><time>2026-04-29T06:47:09.001Z</time></trkpt><trkpt lat="39.769393292642434" lon="9.42892835584201"><ele>417.0</ele><time>2026-04-29T06:47:11.001Z</time></trkpt><trkpt lat="39.76941804038389" lon="9.429082021905291"><ele>417.0</ele><time>2026-04-29T06:47:13.001Z</time></trkpt><trkpt lat="39.769413465891745" lon="9.429167476627976"><ele>419.0</ele><time>2026-04-29T06:47:14.001Z</time></trkpt><trkpt lat="39.769400188795785" lon="9.429265975846056"><ele>421.0</ele><time>2026-04-29T06:47:15.001Z</time></trkpt><trkpt lat="39.76938347610696" lon="9.42938023420372"><ele>423.00000000000006</ele><time>2026-04-29T06:47:16.001Z</time></trkpt><trkpt lat="39.7693622030775" lon="9.429512158213305"><ele>425.0</ele><time>2026-04-29T06:47:17.001Z</time></trkpt><trkpt lat="39.76934274442351" lon="9.429652939602505"><ele>427.0</ele><time>2026-04-29T06:47:18.001Z</time></trkpt><trkpt lat="39.76932951225478" lon="9.42979952866825"><ele>427.25</ele><time>2026-04-29T06:47:19.001Z</time></trkpt><trkpt lat="39.76930493027363" lon="9.42994139757569"><ele>427.5</ele><time>2026-04-29T06:47:20.001Z</time></trkpt><trkpt lat="39.769276453564736" lon="9.430087468689047"><ele>427.75</ele><time>2026-04-29T06:47:21.001Z</time></trkpt><trkpt lat="39.76925120859671" lon="9.430246397574637"><ele>428.0</ele><time>2026-04-29T06:47:22.001Z</time></trkpt><trkpt lat="39.769227153923545" lon="9.430410894917582"><ele>431.25</ele><time>2026-04-29T06:47:23.001Z</time></trkpt><trkpt lat="39.76920454987162" lon="9.430575326333715"><ele>434.5</ele><time>2026-04-29T06:47:24.001Z</time></trkpt><trkpt lat="39.76917656741058" lon="9.430739380126703"><ele>437.75</ele><time>2026-04-29T06:47:25.001Z</time></trkpt><trkpt lat="39.76915709625816" lon="9.430922372527737"><ele>441.0</ele><time>2026-04-29T06:47:26.001Z</time></trkpt><trkpt lat="39.76914271969684" lon="9.43112264733503"><ele>443.66666666666663</ele><time>2026-04-29T06:47:27.001Z</time></trkpt><trkpt lat="39.769129587328344" lon="9.431328448195462"><ele>446.3333333333333</ele><time>2026-04-29T06:47:28.001Z</time></trkpt><trkpt lat="39.76911390865057" lon="9.431532035559801"><ele>449.0</ele><time>2026-04-29T06:47:29.001Z</time></trkpt><trkpt lat="39.76910173045459" lon="9.431721563578684"><ele>449.0</ele><time>2026-04-29T06:47:30.001Z</time></trkpt><trkpt lat="39.76909415305159" lon="9.431890987305652"><ele>449.0</ele><time>2026-04-29T06:47:31.001Z</time></trkpt><trkpt lat="39.769110434233205" lon="9.432034092850197"><ele>449.0</ele><time>2026-04-29T06:47:32.001Z</time></trkpt><trkpt lat="39.76914732730743" lon="9.43216408974935"><ele>449.0</ele><time>2026-04-29T06:47:33Z</time></trkpt><trkpt lat="39.76919959463958" lon="9.432291482941741"><ele>448.8333333333333</ele><time>2026-04-29T06:47:34.001Z</time></trkpt><trkpt lat="39.76926178213313" lon="9.432403045013245"><ele>448.66666666666663</ele><time>2026-04-29T06:47:35.001Z</time></trkpt><trkpt lat="39.76932732249124" lon="9.43247294487672"><ele>448.5</ele><time>2026-04-29T06:47:36Z</time></trkpt><trkpt lat="39.76939251554154" lon="9.432502573021678"><ele>448.33333333333337</ele><time>2026-04-29T06:47:37Z</time></trkpt><trkpt lat="39.769457524831566" lon="9.432492005643349"><ele>448.1666666666667</ele><time>2026-04-29T06:47:38Z</time></trkpt><trkpt lat="39.769519777594404" lon="9.432457049785143"><ele>448.0</ele><time>2026-04-29T06:47:39Z</time></trkpt><trkpt lat="39.76957608984006" lon="9.432396232508102"><ele>453.79999999999995</ele><time>2026-04-29T06:47:40Z</time></trkpt><trkpt lat="39.76962163691766" lon="9.432322954055401"><ele>459.59999999999997</ele><time>2026-04-29T06:47:41Z</time></trkpt><trkpt lat="39.769662441277546" lon="9.432233171847285"><ele>465.40000000000003</ele><time>2026-04-29T06:47:42Z</time></trkpt><trkpt lat="39.7696893018444" lon="9.432123602996603"><ele>471.20000000000005</ele><time>2026-04-29T06:47:43Z</time></trkpt><trkpt lat="39.76971481998212" lon="9.431999938274112"><ele>477.0</ele><time>2026-04-29T06:47:44Z</time></trkpt><trkpt lat="39.76974704812043" lon="9.431858891618349"><ele>477.0</ele><time>2026-04-29T06:47:45Z</time></trkpt><trkpt lat="39.76978349365452" lon="9.431709579293402"><ele>477.0</ele><time>2026-04-29T06:47:46Z</time></trkpt><trkpt lat="39.769828054233706" lon="9.431558352549818"><ele>477.0</ele><time>2026-04-29T06:47:47Z</time></trkpt><trkpt lat="39.769863338249195" lon="9.43140617894439"><ele>477.0</ele><time>2026-04-29T06:47:48Z</time></trkpt><trkpt lat="39.769896553370906" lon="9.43126325538562"><ele>475.6</ele><time>2026-04-29T06:47:49Z</time></trkpt><trkpt lat="39.76993133831369" lon="9.431137682308943"><ele>474.20000000000005</ele><time>2026-04-29T06:47:50Z</time></trkpt><trkpt lat="39.76997702790574" lon="9.431029267401463"><ele>472.8</ele><time>2026-04-29T06:47:51Z</time></trkpt><trkpt lat="39.770031069337094" lon="9.430933772456118"><ele>471.4</ele><time>2026-04-29T06:47:52Z</time></trkpt><trkpt lat="39.77009775802543" lon="9.430850629982785"><ele>470.0</ele><time>2026-04-29T06:47:53Z</time></trkpt><trkpt lat="39.770177967878205" lon="9.430781945865425"><ele>472.4</ele><time>2026-04-29T06:47:54Z</time></trkpt><trkpt lat="39.77026653288152" lon="9.4307268001448"><ele>474.8</ele><time>2026-04-29T06:47:55Z</time></trkpt><trkpt lat="39.77035793363492" lon="9.430691953126253"><ele>477.20000000000005</ele><time>2026-04-29T06:47:56Z</time></trkpt><trkpt lat="39.77045132505224" lon="9.430678499778963"><ele>479.6</ele><time>2026-04-29T06:47:57Z</time></trkpt><trkpt lat="39.7705499732197" lon="9.4306890896031"><ele>482.0</ele><time>2026-04-29T06:47:58Z</time></trkpt><trkpt lat="39.77065645668097" lon="9.430716334948563"><ele>482.0</ele><time>2026-04-29T06:47:59Z</time></trkpt><trkpt lat="39.77076717202177" lon="9.430759304200999"><ele>482.0</ele><time>2026-04-29T06:48:00Z</time></trkpt><trkpt lat="39.77088177838227" lon="9.43082951702799"><ele>482.0</ele><time>2026-04-29T06:48:01Z</time></trkpt><trkpt lat="39.7710022165026" lon="9.430959998662123"><ele>482.0</ele><time>2026-04-29T06:48:02Z</time></trkpt><trkpt lat="39.77115410058949" lon="9.43109404372625"><ele>478.66666666666663</ele><time>2026-04-29T06:48:03Z</time></trkpt><trkpt lat="39.771316460162296" lon="9.431238466828587"><ele>475.33333333333337</ele><time>2026-04-29T06:48:04Z</time></trkpt><trkpt lat="39.771493953252886" lon="9.431379494853743"><ele>472.0</ele><time>2026-04-29T06:48:05Z</time></trkpt><trkpt lat="39.77132587881542" lon="9.431226749526367"><ele>477.5</ele><time>2026-04-29T06:48:06Z</time></trkpt><trkpt lat="39.7714342229298" lon="9.43134056506611"><ele>483.0</ele><time>2026-04-29T06:48:07Z</time></trkpt><trkpt lat="39.77155934879224" lon="9.43140427512849"><ele>488.5</ele><time>2026-04-29T06:48:08Z</time></trkpt><trkpt lat="39.77168843855557" lon="9.431466058488937"><ele>494.0</ele><time>2026-04-29T06:48:09Z</time></trkpt><trkpt lat="39.771812411588165" lon="9.43152707280438"><ele>491.99999999999994</ele><time>2026-04-29T06:48:10Z</time></trkpt><trkpt lat="39.77191667207432" lon="9.43158957873639"><ele>490.0</ele><time>2026-04-29T06:48:11Z</time></trkpt><trkpt lat="39.77198226770073" lon="9.431677397290283"><ele>488.0</ele><time>2026-04-29T06:48:12Z</time></trkpt><trkpt lat="39.77204007891512" lon="9.431749608874675"><ele>486.0</ele><time>2026-04-29T06:48:13Z</time></trkpt><trkpt lat="39.77207891370657" lon="9.431830304520345"><ele>483.99999999999994</ele><time>2026-04-29T06:48:14Z</time></trkpt><trkpt lat="39.772100110710056" lon="9.43193112437198"><ele>482.0</ele><time>2026-04-29T06:48:15Z</time></trkpt><trkpt lat="39.77211268027356" lon="9.432048008257675"><ele>483.6</ele><time>2026-04-29T06:48:16Z</time></trkpt><trkpt lat="39.77212247844382" lon="9.432179506919898"><ele>485.20000000000005</ele><time>2026-04-29T06:48:17Z</time></trkpt><trkpt lat="39.772134897363046" lon="9.432320448084898"><ele>486.8</ele><time>2026-04-29T06:48:18Z</time></trkpt><trkpt lat="39.772142525837765" lon="9.43246588404455"><ele>488.4</ele><time>2026-04-29T06:48:19Z</time></trkpt><trkpt lat="39.772129913512" lon="9.432588417089159"><ele>490.0</ele><time>2026-04-29T06:48:20Z</time></trkpt><trkpt lat="39.77209005777463" lon="9.432706517631855"><ele>490.0</ele><time>2026-04-29T06:48:21Z</time></trkpt><trkpt lat="39.772047883095816" lon="9.432847031524815"><ele>490.0</ele><time>2026-04-29T06:48:22Z</time></trkpt><trkpt lat="39.77199961531309" lon="9.433010660450705"><ele>490.0</ele><time>2026-04-29T06:48:23Z</time></trkpt><trkpt lat="39.77195054731405" lon="9.433190202786479"><ele>490.0</ele><time>2026-04-29T06:48:24Z</time></trkpt><trkpt lat="39.77192226550518" lon="9.433369242128983"><ele>489.25</ele><time>2026-04-29T06:48:25Z</time></trkpt><trkpt lat="39.77187759947454" lon="9.433540785745086"><ele>488.5</ele><time>2026-04-29T06:48:26Z</time></trkpt><trkpt lat="39.77184776582696" lon="9.433704877249161"><ele>487.75</ele><time>2026-04-29T06:48:27Z</time></trkpt><trkpt lat="39.771829215061686" lon="9.433856945136291"><ele>487.0</ele><time>2026-04-29T06:48:28Z</time></trkpt><trkpt lat="39.771845321360324" lon="9.433991263720118"><ele>488.40000000000003</ele><time>2026-04-29T06:48:29Z</time></trkpt><trkpt lat="39.77187201917595" lon="9.434109867746164"><ele>489.80000000000007</ele><time>2026-04-29T06:48:30Z</time></trkpt><trkpt lat="39.7719143593721" lon="9.434213527055025"><ele>491.2</ele><time>2026-04-29T06:48:31Z</time></trkpt><trkpt lat="39.77195542640286" lon="9.434336875385856"><ele>492.6</ele><time>2026-04-29T06:48:32Z</time></trkpt><trkpt lat="39.77205375381429" lon="9.434415452622117"><ele>494.0</ele><time>2026-04-29T06:48:33Z</time></trkpt><trkpt lat="39.77213797304427" lon="9.43450346543868"><ele>494.0</ele><time>2026-04-29T06:48:34Z</time></trkpt><trkpt lat="39.772241703537325" lon="9.434599388437812"><ele>494.0</ele><time>2026-04-29T06:48:35Z</time></trkpt><trkpt lat="39.772357593796826" lon="9.434710196307993"><ele>494.0</ele><time>2026-04-29T06:48:36Z</time></trkpt><trkpt lat="39.77248386172722" lon="9.43482765268057"><ele>494.0</ele><time>2026-04-29T06:48:37Z</time></trkpt><trkpt lat="39.7726092597565" lon="9.43494897397191"><ele>496.66666666666663</ele><time>2026-04-29T06:48:38Z</time></trkpt><trkpt lat="39.77273680400002" lon="9.43507546020963"><ele>499.33333333333337</ele><time>2026-04-29T06:48:39Z</time></trkpt><trkpt lat="39.77285995214495" lon="9.435201906665093"><ele>502.0</ele><time>2026-04-29T06:48:40Z</time></trkpt><trkpt lat="39.7729786500096" lon="9.435329425054396"><ele>502.0</ele><time>2026-04-29T06:48:41Z</time></trkpt><trkpt lat="39.773096175471565" lon="9.435440259595119"><ele>502.0</ele><time>2026-04-29T06:48:42Z</time></trkpt><trkpt lat="39.77321126914422" lon="9.435539984172252"><ele>502.0</ele><time>2026-04-29T06:48:43Z</time></trkpt><trkpt lat="39.77331538471006" lon="9.435640709939797"><ele>502.0</ele><time>2026-04-29T06:48:44Z</time></trkpt><trkpt lat="39.77340392546592" lon="9.435756926229084"><ele>505.33333333333337</ele><time>2026-04-29T06:48:45Z</time></trkpt><trkpt lat="39.77349697769727" lon="9.435891849624603"><ele>508.66666666666663</ele><time>2026-04-29T06:48:46Z</time></trkpt><trkpt lat="39.77359213017536" lon="9.4360538105334"><ele>512.0</ele><time>2026-04-29T06:48:47Z</time></trkpt><trkpt lat="39.77369506834926" lon="9.436216938972528"><ele>516.0</ele><time>2026-04-29T06:48:48Z</time></trkpt><trkpt lat="39.77380056721335" lon="9.436377923869744"><ele>520.0</ele><time>2026-04-29T06:48:49Z</time></trkpt><trkpt lat="39.77390948651971" lon="9.436536375711038"><ele>524.0</ele><time>2026-04-29T06:48:50Z</time></trkpt><trkpt lat="39.77401533033865" lon="9.43668961105332"><ele>524.0</ele><time>2026-04-29T06:48:51Z</time></trkpt><trkpt lat="39.77411911274789" lon="9.436842166717952"><ele>524.0</ele><time>2026-04-29T06:48:52Z</time></trkpt><trkpt lat="39.774221301146234" lon="9.436999208714655"><ele>524.0</ele><time>2026-04-29T06:48:53Z</time></trkpt><trkpt lat="39.77433689430587" lon="9.437156504732684"><ele>526.0</ele><time>2026-04-29T06:48:54Z</time></trkpt><trkpt lat="39.77444874226632" lon="9.437307776249789"><ele>528.0</ele><time>2026-04-29T06:48:55Z</time></trkpt><trkpt lat="39.77456215741205" lon="9.437461179419133"><ele>530.0</ele><time>2026-04-29T06:48:56Z</time></trkpt><trkpt lat="39.77466538772479" lon="9.437611332284993"><ele>530.0</ele><time>2026-04-29T06:48:57Z</time></trkpt><trkpt lat="39.77476835141003" lon="9.43776195699907"><ele>530.0</ele><time>2026-04-29T06:48:58Z</time></trkpt><trkpt lat="39.77487910662088" lon="9.437905746080117"><ele>530.0</ele><time>2026-04-29T06:48:59Z</time></trkpt><trkpt lat="39.77498187199988" lon="9.438036173103164"><ele>532.25</ele><time>2026-04-29T06:49:00Z</time></trkpt><trkpt lat="39.77508852517407" lon="9.438161555474046"><ele>534.5</ele><time>2026-04-29T06:49:01Z</time></trkpt><trkpt lat="39.77517722748844" lon="9.438298390702762"><ele>536.75</ele><time>2026-04-29T06:49:02Z</time></trkpt><trkpt lat="39.77527994078184" lon="9.438388907735021"><ele>539.0</ele><time>2026-04-29T06:49:03Z</time></trkpt><trkpt lat="39.775381201240016" lon="9.438468575367835"><ele>539.8</ele><time>2026-04-29T06:49:04Z</time></trkpt><trkpt lat="39.77546457662061" lon="9.438519531713665"><ele>540.5999999999999</ele><time>2026-04-29T06:49:05Z</time></trkpt><trkpt lat="39.775563132272396" lon="9.438547499135584"><ele>541.4</ele><time>2026-04-29T06:49:06Z</time></trkpt><trkpt lat="39.775658793851136" lon="9.438549981753548"><ele>542.1999999999999</ele><time>2026-04-29T06:49:07Z</time></trkpt><trkpt lat="39.77575013424558" lon="9.438538592013389"><ele>543.0</ele><time>2026-04-29T06:49:08Z</time></trkpt><trkpt lat="39.77585002299204" lon="9.438512663941534"><ele>543.0</ele><time>2026-04-29T06:49:09Z</time></trkpt><trkpt lat="39.77595633740684" lon="9.43850181207873"><ele>543.0</ele><time>2026-04-29T06:49:10Z</time></trkpt><trkpt lat="39.776054712032355" lon="9.43851463612969"><ele>543.0</ele><time>2026-04-29T06:49:11Z</time></trkpt><trkpt lat="39.77613499148215" lon="9.438551678310656"><ele>543.0</ele><time>2026-04-29T06:49:12Z</time></trkpt><trkpt lat="39.7761996334605" lon="9.438640018743884"><ele>543.0</ele><time>2026-04-29T06:49:13Z</time></trkpt><trkpt lat="39.7762798959824" lon="9.438711188950393"><ele>545.5</ele><time>2026-04-29T06:49:14Z</time></trkpt><trkpt lat="39.776358980576894" lon="9.438818200065327"><ele>548.0</ele><time>2026-04-29T06:49:15Z</time></trkpt><trkpt lat="39.77644523018712" lon="9.438939195690445"><ele>550.5</ele><time>2026-04-29T06:49:16Z</time></trkpt><trkpt lat="39.77652804411033" lon="9.439073755669478"><ele>553.0</ele><time>2026-04-29T06:49:17Z</time></trkpt><trkpt lat="39.776612562358316" lon="9.439216901756815"><ele>553.0</ele><time>2026-04-29T06:49:18Z</time></trkpt><trkpt lat="39.776692723271374" lon="9.439367094359545"><ele>553.0</ele><time>2026-04-29T06:49:19Z</time></trkpt><trkpt lat="39.77676835106996" lon="9.439528964877551"><ele>553.0</ele><time>2026-04-29T06:49:20Z</time></trkpt><trkpt lat="39.77683546167204" lon="9.439697853809276"><ele>553.0</ele><time>2026-04-29T06:49:21Z</time></trkpt><trkpt lat="39.77689803953191" lon="9.439868964609781"><ele>554.75</ele><time>2026-04-29T06:49:22Z</time></trkpt><trkpt lat="39.77695297379333" lon="9.440034643150113"><ele>556.5</ele><time>2026-04-29T06:49:23Z</time></trkpt><trkpt lat="39.77701136651061" lon="9.440190860496628"><ele>558.25</ele><time>2026-04-29T06:49:24Z</time></trkpt><trkpt lat="39.777077807360804" lon="9.440328316853257"><ele>560.0</ele><time>2026-04-29T06:49:25Z</time></trkpt><trkpt lat="39.777165396005266" lon="9.440456368203908"><ele>561.6666666666666</ele><time>2026-04-29T06:49:26.001Z</time></trkpt><trkpt lat="39.77726024344312" lon="9.440579245042173"><ele>563.3333333333334</ele><time>2026-04-29T06:49:27.001Z</time></trkpt><trkpt lat="39.77737009340439" lon="9.440720006511818"><ele>565.0</ele><time>2026-04-29T06:49:28.001Z</time></trkpt><trkpt lat="39.777487163228635" lon="9.440874978688573"><ele>565.0</ele><time>2026-04-29T06:49:29.001Z</time></trkpt><trkpt lat="39.777612992159206" lon="9.441041223451952"><ele>565.0</ele><time>2026-04-29T06:49:30.001Z</time></trkpt><trkpt lat="39.77774318101145" lon="9.441204906385014"><ele>565.0</ele><time>2026-04-29T06:49:31.001Z</time></trkpt><trkpt lat="39.77788377348041" lon="9.441371655595312"><ele>567.0</ele><time>2026-04-29T06:49:32.001Z</time></trkpt><trkpt lat="39.77799755244337" lon="9.44155546023428"><ele>569.0</ele><time>2026-04-29T06:49:33.001Z</time></trkpt><trkpt lat="39.778122538697374" lon="9.441728362441236"><ele>571.0</ele><time>2026-04-29T06:49:34.001Z</time></trkpt><trkpt lat="39.778248814977935" lon="9.441871854741022"><ele>571.0</ele><time>2026-04-29T06:49:35.001Z</time></trkpt><trkpt lat="39.77835491579752" lon="9.442022013279162"><ele>571.0</ele><time>2026-04-29T06:49:36.001Z</time></trkpt><trkpt lat="39.77846222776421" lon="9.442164327900304"><ele>571.0</ele><time>2026-04-29T06:49:37.001Z</time></trkpt><trkpt lat="39.77855634129143" lon="9.442308793556446"><ele>572.3333333333334</ele><time>2026-04-29T06:49:38.001Z</time></trkpt><trkpt lat="39.77866176918997" lon="9.442451997394993"><ele>573.6666666666666</ele><time>2026-04-29T06:49:39.001Z</time></trkpt><trkpt lat="39.77876307548585" lon="9.442592204857965"><ele>575.0</ele><time>2026-04-29T06:49:40.001Z</time></trkpt><trkpt lat="39.778867103221806" lon="9.44273874869888"><ele>575.0</ele><time>2026-04-29T06:49:41.001Z</time></trkpt><trkpt lat="39.77896076974858" lon="9.442892178003014"><ele>575.0</ele><time>2026-04-29T06:49:42Z</time></trkpt><trkpt lat="39.779059224826334" lon="9.443039931443106"><ele>575.0</ele><time>2026-04-29T06:49:43Z</time></trkpt><trkpt lat="39.779147874354784" lon="9.443188384140656"><ele>575.0</ele><time>2026-04-29T06:49:44Z</time></trkpt><trkpt lat="39.77923128154626" lon="9.44333341210854"><ele>575.0</ele><time>2026-04-29T06:49:45Z</time></trkpt><trkpt lat="39.779315742998044" lon="9.443481983408791"><ele>575.0</ele><time>2026-04-29T06:49:46.001Z</time></trkpt><trkpt lat="39.779396966443926" lon="9.443615041931443"><ele>575.0</ele><time>2026-04-29T06:49:47.001Z</time></trkpt><trkpt lat="39.77945386484875" lon="9.44374507726068"><ele>575.0</ele><time>2026-04-29T06:49:48Z</time></trkpt><trkpt lat="39.779520850229844" lon="9.443849060229986"><ele>576.75</ele><time>2026-04-29T06:49:49Z</time></trkpt><trkpt lat="39.779585915600336" lon="9.443967844963547"><ele>578.5</ele><time>2026-04-29T06:49:50Z</time></trkpt><trkpt lat="39.779653352098826" lon="9.444089543421878"><ele>580.25</ele><time>2026-04-29T06:49:51Z</time></trkpt><trkpt lat="39.77972274423381" lon="9.444219588640154"><ele>582.0</ele><time>2026-04-29T06:49:52.001Z</time></trkpt><trkpt lat="39.77979417141324" lon="9.444356954034856"><ele>582.0</ele><time>2026-04-29T06:49:53.001Z</time></trkpt><trkpt lat="39.779868979513914" lon="9.444504410778952"><ele>582.0</ele><time>2026-04-29T06:49:54.001Z</time></trkpt><trkpt lat="39.779947087122615" lon="9.444658033668405"><ele>582.0</ele><time>2026-04-29T06:49:55.001Z</time></trkpt><trkpt lat="39.78002761445462" lon="9.444810300364738"><ele>582.0</ele><time>2026-04-29T06:49:56.001Z</time></trkpt><trkpt lat="39.780103013666235" lon="9.444945804372441"><ele>582.0</ele><time>2026-04-29T06:49:57.001Z</time></trkpt><trkpt lat="39.78017515402589" lon="9.445071177554587"><ele>582.0</ele><time>2026-04-29T06:49:58.001Z</time></trkpt><trkpt lat="39.78023776973703" lon="9.445188723152732"><ele>582.0</ele><time>2026-04-29T06:49:59.001Z</time></trkpt><trkpt lat="39.78028417848447" lon="9.445277698669331"><ele>582.0</ele><time>2026-04-29T06:50:00.001Z</time></trkpt><trkpt lat="39.780381691877096" lon="9.445170758129676"><ele>582.0</ele><time>2026-04-29T06:50:12.001Z</time></trkpt><trkpt lat="39.78038963585497" lon="9.445008932996053"><ele>585.2</ele><time>2026-04-29T06:50:14.001Z</time></trkpt><trkpt lat="39.780428537153945" lon="9.444848597061398"><ele>588.4000000000001</ele><time>2026-04-29T06:50:16.001Z</time></trkpt><trkpt lat="39.78045336933724" lon="9.444771610980323"><ele>591.5999999999999</ele><time>2026-04-29T06:50:17.001Z</time></trkpt><trkpt lat="39.780485320449834" lon="9.444621701588611"><ele>594.8</ele><time>2026-04-29T06:50:19.001Z</time></trkpt><trkpt lat="39.78049467093397" lon="9.444453883856363"><ele>598.0</ele><time>2026-04-29T06:50:21.001Z</time></trkpt><trkpt lat="39.78049653450345" lon="9.444275341268904"><ele>599.5</ele><time>2026-04-29T06:50:23.001Z</time></trkpt><trkpt lat="39.7805028828728" lon="9.444185235445905"><ele>601.0</ele><time>2026-04-29T06:50:24.001Z</time></trkpt><trkpt lat="39.78050706205697" lon="9.444081198523543"><ele>602.5</ele><time>2026-04-29T06:50:25.001Z</time></trkpt><trkpt lat="39.78050365517477" lon="9.443982133492748"><ele>604.0</ele><time>2026-04-29T06:50:26.001Z</time></trkpt><trkpt lat="39.780500588832616" lon="9.443870792249452"><ele>605.5</ele><time>2026-04-29T06:50:27.001Z</time></trkpt><trkpt lat="39.78048928443709" lon="9.443760515293398"><ele>607.0</ele><time>2026-04-29T06:50:28.001Z</time></trkpt><trkpt lat="39.78048300047288" lon="9.443660099199327"><ele>608.6666666666667</ele><time>2026-04-29T06:50:29.001Z</time></trkpt><trkpt lat="39.78047263540291" lon="9.443555444184545"><ele>610.3333333333334</ele><time>2026-04-29T06:50:30.001Z</time></trkpt><trkpt lat="39.780456458358735" lon="9.443451983467611"><ele>612.0</ele><time>2026-04-29T06:50:31.001Z</time></trkpt><trkpt lat="39.78046801707138" lon="9.443356009714334"><ele>613.6666666666666</ele><time>2026-04-29T06:50:32.001Z</time></trkpt><trkpt lat="39.7804646626587" lon="9.443256018349153"><ele>615.3333333333333</ele><time>2026-04-29T06:50:33.001Z</time></trkpt><trkpt lat="39.780461963135856" lon="9.44315942308482"><ele>617.0</ele><time>2026-04-29T06:50:34.001Z</time></trkpt><trkpt lat="39.78044928151206" lon="9.443069723064134"><ele>617.0</ele><time>2026-04-29T06:50:35.001Z</time></trkpt><trkpt lat="39.78044536513107" lon="9.442965155353537"><ele>617.0</ele><time>2026-04-29T06:50:36.001Z</time></trkpt><trkpt lat="39.780441994121595" lon="9.442845246720825"><ele>617.0</ele><time>2026-04-29T06:50:37.001Z</time></trkpt><trkpt lat="39.78043735655565" lon="9.442733579750799"><ele>617.0</ele><time>2026-04-29T06:50:38.001Z</time></trkpt><trkpt lat="39.78042951963496" lon="9.44262141245504"><ele>617.0</ele><time>2026-04-29T06:50:39.001Z</time></trkpt><trkpt lat="39.78043084281636" lon="9.442525039389725"><ele>617.0</ele><time>2026-04-29T06:50:40.001Z</time></trkpt><trkpt lat="39.78042229650614" lon="9.442402909895012"><ele>619.6</ele><time>2026-04-29T06:50:41.001Z</time></trkpt><trkpt lat="39.780426216544676" lon="9.442267391727311"><ele>622.2</ele><time>2026-04-29T06:50:42.001Z</time></trkpt><trkpt lat="39.78040445205115" lon="9.442158494296258"><ele>624.8</ele><time>2026-04-29T06:50:43.001Z</time></trkpt><trkpt lat="39.78038541213102" lon="9.442038319886471"><ele>627.4</ele><time>2026-04-29T06:50:44.001Z</time></trkpt><trkpt lat="39.78037154035632" lon="9.441919449279629"><ele>630.0</ele><time>2026-04-29T06:50:45.001Z</time></trkpt><trkpt lat="39.780345518197024" lon="9.441801698434972"><ele>631.4</ele><time>2026-04-29T06:50:46.001Z</time></trkpt><trkpt lat="39.78033822597325" lon="9.441674065667556"><ele>632.8</ele><time>2026-04-29T06:50:47.001Z</time></trkpt><trkpt lat="39.78032136323169" lon="9.44155681147829"><ele>634.2</ele><time>2026-04-29T06:50:48.001Z</time></trkpt><trkpt lat="39.780308692943734" lon="9.441444890235521"><ele>635.6</ele><time>2026-04-29T06:50:49.001Z</time></trkpt><trkpt lat="39.78029969454343" lon="9.441336028080215"><ele>637.0</ele><time>2026-04-29T06:50:50.001Z</time></trkpt><trkpt lat="39.78028694464329" lon="9.441216182081742"><ele>637.0</ele><time>2026-04-29T06:50:51.001Z</time></trkpt><trkpt lat="39.78030699920743" lon="9.441094297635196"><ele>637.0</ele><time>2026-04-29T06:50:52.001Z</time></trkpt><trkpt lat="39.780327994832916" lon="9.440956128993978"><ele>637.0</ele><time>2026-04-29T06:50:53.001Z</time></trkpt><trkpt lat="39.780354448282296" lon="9.440846477052109"><ele>637.0</ele><time>2026-04-29T06:50:54.001Z</time></trkpt><trkpt lat="39.780389857639975" lon="9.44076859732447"><ele>637.0</ele><time>2026-04-29T06:50:55.001Z</time></trkpt><trkpt lat="39.780474170745336" lon="9.440679520738591"><ele>637.0</ele><time>2026-04-29T06:50:57.001Z</time></trkpt><trkpt lat="39.78059986687536" lon="9.440648046937902"><ele>637.0</ele><time>2026-04-29T06:50:59.001Z</time></trkpt><trkpt lat="39.78066769285782" lon="9.440633158769954"><ele>637.0</ele><time>2026-04-29T06:51:00.001Z</time></trkpt><trkpt lat="39.78072932991316" lon="9.440592526322169"><ele>637.0</ele><time>2026-04-29T06:51:01.001Z</time></trkpt><trkpt lat="39.78077948987464" lon="9.440539792722427"><ele>637.0</ele><time>2026-04-29T06:51:02.001Z</time></trkpt><trkpt lat="39.780826228613705" lon="9.440465532532517"><ele>637.0</ele><time>2026-04-29T06:51:03.001Z</time></trkpt><trkpt lat="39.780879139575326" lon="9.44039324089033"><ele>636.0</ele><time>2026-04-29T06:51:04.001Z</time></trkpt><trkpt lat="39.780937396922845" lon="9.440323649441545"><ele>635.0</ele><time>2026-04-29T06:51:05.001Z</time></trkpt><trkpt lat="39.78096115270723" lon="9.440220211918989"><ele>634.0</ele><time>2026-04-29T06:51:06.001Z</time></trkpt><trkpt lat="39.78100344010518" lon="9.440132461474143"><ele>633.0</ele><time>2026-04-29T06:51:07.001Z</time></trkpt><trkpt lat="39.78103671380817" lon="9.440045120001502"><ele>632.0</ele><time>2026-04-29T06:51:08.001Z</time></trkpt><trkpt lat="39.781072070130186" lon="9.439955198989642"><ele>631.0</ele><time>2026-04-29T06:51:09.001Z</time></trkpt><trkpt lat="39.78110911143746" lon="9.439860162719404"><ele>633.8333333333334</ele><time>2026-04-29T06:51:10.001Z</time></trkpt><trkpt lat="39.78115441629828" lon="9.439763861364662"><ele>636.6666666666667</ele><time>2026-04-29T06:51:11.001Z</time></trkpt><trkpt lat="39.78120206474167" lon="9.439690979553998"><ele>639.5</ele><time>2026-04-29T06:51:12.001Z</time></trkpt><trkpt lat="39.781256806051644" lon="9.439624396490306"><ele>642.3333333333334</ele><time>2026-04-29T06:51:13.001Z</time></trkpt><trkpt lat="39.78131453686653" lon="9.43956315400325"><ele>645.1666666666666</ele><time>2026-04-29T06:51:14.001Z</time></trkpt><trkpt lat="39.781379289470976" lon="9.43950550702503"><ele>648.0</ele><time>2026-04-29T06:51:15.001Z</time></trkpt><trkpt lat="39.78144678580172" lon="9.439455266121348"><ele>648.0</ele><time>2026-04-29T06:51:16.001Z</time></trkpt><trkpt lat="39.78151704057774" lon="9.439410786712545"><ele>648.0</ele><time>2026-04-29T06:51:17.001Z</time></trkpt><trkpt lat="39.78159194170121" lon="9.439364482126086"><ele>648.0</ele><time>2026-04-29T06:51:18.001Z</time></trkpt><trkpt lat="39.78166447209545" lon="9.439306830085528"><ele>648.0</ele><time>2026-04-29T06:51:19.001Z</time></trkpt><trkpt lat="39.78172322229696" lon="9.439245926032767"><ele>648.0</ele><time>2026-04-29T06:51:20.001Z</time></trkpt><trkpt lat="39.78176883525818" lon="9.439181580247508"><ele>648.0</ele><time>2026-04-29T06:51:21.001Z</time></trkpt><trkpt lat="39.781808954933425" lon="9.439115637687474"><ele>648.0</ele><time>2026-04-29T06:51:22.001Z</time></trkpt><trkpt lat="39.78184006560347" lon="9.43904079981178"><ele>648.0</ele><time>2026-04-29T06:51:23.001Z</time></trkpt><trkpt lat="39.78187332181597" lon="9.438958372318105"><ele>648.0</ele><time>2026-04-29T06:51:24.001Z</time></trkpt><trkpt lat="39.781925888431594" lon="9.438893968355533"><ele>648.0</ele><time>2026-04-29T06:51:25.001Z</time></trkpt><trkpt lat="39.78198877921407" lon="9.43883763845824"><ele>648.0</ele><time>2026-04-29T06:51:26.001Z</time></trkpt><trkpt lat="39.78204644879328" lon="9.438781173230447"><ele>648.0</ele><time>2026-04-29T06:51:27.001Z</time></trkpt><trkpt lat="39.78210373976839" lon="9.438739079952807"><ele>648.0</ele><time>2026-04-29T06:51:28.001Z</time></trkpt><trkpt lat="39.7821902624492" lon="9.43872906256605"><ele>651.3333333333334</ele><time>2026-04-29T06:51:30.001Z</time></trkpt><trkpt lat="39.782211182116065" lon="9.438823127259315"><ele>654.6666666666666</ele><time>2026-04-29T06:51:33.001Z</time></trkpt><trkpt lat="39.78219461941492" lon="9.4389345657546"><ele>658.0</ele><time>2026-04-29T06:51:35.001Z</time></trkpt><trkpt lat="39.782202334226746" lon="9.439089583961431"><ele>661.3333333333333</ele><time>2026-04-29T06:51:37.001Z</time></trkpt><trkpt lat="39.78219371131268" lon="9.439179585033623"><ele>664.6666666666666</ele><time>2026-04-29T06:51:38.001Z</time></trkpt><trkpt lat="39.782182985528735" lon="9.439293493224536"><ele>668.0</ele><time>2026-04-29T06:51:39.001Z</time></trkpt><trkpt lat="39.78216679547999" lon="9.439424900971051"><ele>668.0</ele><time>2026-04-29T06:51:40.001Z</time></trkpt><trkpt lat="39.782140340564695" lon="9.439563100167677"><ele>668.0</ele><time>2026-04-29T06:51:41.001Z</time></trkpt><trkpt lat="39.78210315420534" lon="9.439716157808176"><ele>668.0</ele><time>2026-04-29T06:51:42.001Z</time></trkpt><trkpt lat="39.78206538422753" lon="9.439884742319617"><ele>668.0</ele><time>2026-04-29T06:51:43.001Z</time></trkpt><trkpt lat="39.782026934210265" lon="9.440065546865219"><ele>669.25</ele><time>2026-04-29T06:51:44.001Z</time></trkpt><trkpt lat="39.78198765717377" lon="9.440256517707594"><ele>670.5</ele><time>2026-04-29T06:51:45Z</time></trkpt><trkpt lat="39.78195100501905" lon="9.44042236880058"><ele>671.75</ele><time>2026-04-29T06:51:46Z</time></trkpt><trkpt lat="39.78191868792252" lon="9.44057870171728"><ele>673.0</ele><time>2026-04-29T06:51:47Z</time></trkpt><trkpt lat="39.78189304285051" lon="9.440709128208578"><ele>674.0</ele><time>2026-04-29T06:51:48Z</time></trkpt><trkpt lat="39.78187177766344" lon="9.440809475991445"><ele>675.0</ele><time>2026-04-29T06:51:49Z</time></trkpt><trkpt lat="39.781859386647454" lon="9.44089110022429"><ele>676.0</ele><time>2026-04-29T06:51:50Z</time></trkpt><trkpt lat="39.78185955437616" lon="9.44105326463987"><ele>677.0</ele><time>2026-04-29T06:51:52Z</time></trkpt><trkpt lat="39.78188021002732" lon="9.441160581165716"><ele>678.0</ele><time>2026-04-29T06:51:53Z</time></trkpt><trkpt lat="39.781899154834456" lon="9.441256878758747"><ele>679.0</ele><time>2026-04-29T06:51:54.001Z</time></trkpt><trkpt lat="39.781942078226926" lon="9.441375429009767"><ele>679.0</ele><time>2026-04-29T06:51:56.001Z</time></trkpt><trkpt lat="39.78198871258795" lon="9.441441020366998"><ele>679.0</ele><time>2026-04-29T06:51:58Z</time></trkpt><trkpt lat="39.78211261445045" lon="9.441391183221727"><ele>679.0</ele><time>2026-04-29T06:52:00Z</time></trkpt><trkpt lat="39.782163890646444" lon="9.44132979851825"><ele>679.0</ele><time>2026-04-29T06:52:01Z</time></trkpt><trkpt lat="39.782200503747895" lon="9.441254503857767"><ele>679.0</ele><time>2026-04-29T06:52:02Z</time></trkpt><trkpt lat="39.78222836408277" lon="9.44118085882617"><ele>679.0</ele><time>2026-04-29T06:52:03Z</time></trkpt><trkpt lat="39.78226372360882" lon="9.441098280576734"><ele>679.0</ele><time>2026-04-29T06:52:04Z</time></trkpt><trkpt lat="39.78233974962294" lon="9.440976280506028"><ele>679.0</ele><time>2026-04-29T06:52:06Z</time></trkpt><trkpt lat="39.782451569903095" lon="9.440920089511195"><ele>679.0</ele><time>2026-04-29T06:52:08Z</time></trkpt><trkpt lat="39.78257081487353" lon="9.440874733297022"><ele>679.0</ele><time>2026-04-29T06:52:10Z</time></trkpt><trkpt lat="39.782664404622366" lon="9.440843189068604"><ele>679.3333333333334</ele><time>2026-04-29T06:52:12Z</time></trkpt><trkpt lat="39.78276744680808" lon="9.440779433781534"><ele>679.6666666666667</ele><time>2026-04-29T06:52:14Z</time></trkpt><trkpt lat="39.78284431971799" lon="9.44070010665817"><ele>680.0</ele><time>2026-04-29T06:52:16Z</time></trkpt><trkpt lat="39.782884575093036" lon="9.440633527514402"><ele>680.3333333333334</ele><time>2026-04-29T06:52:17Z</time></trkpt><trkpt lat="39.78293867679259" lon="9.440557284032217"><ele>680.6666666666666</ele><time>2026-04-29T06:52:18Z</time></trkpt><trkpt lat="39.78300418775524" lon="9.440488480013718"><ele>681.0</ele><time>2026-04-29T06:52:19Z</time></trkpt><trkpt lat="39.78307717584712" lon="9.44042301834292"><ele>681.0</ele><time>2026-04-29T06:52:20Z</time></trkpt><trkpt lat="39.78314252361954" lon="9.440357495581285"><ele>681.0</ele><time>2026-04-29T06:52:21Z</time></trkpt><trkpt lat="39.783213107902604" lon="9.440265754155389"><ele>681.0</ele><time>2026-04-29T06:52:22Z</time></trkpt><trkpt lat="39.783278690759246" lon="9.44017833575606"><ele>681.0</ele><time>2026-04-29T06:52:23Z</time></trkpt><trkpt lat="39.78335272505498" lon="9.44008072401094"><ele>681.0</ele><time>2026-04-29T06:52:24Z</time></trkpt><trkpt lat="39.78343053256721" lon="9.439995888058606"><ele>681.6666666666666</ele><time>2026-04-29T06:52:25Z</time></trkpt><trkpt lat="39.78351432402887" lon="9.439912954554062"><ele>682.3333333333334</ele><time>2026-04-29T06:52:26Z</time></trkpt><trkpt lat="39.78359559045457" lon="9.439836053253194"><ele>683.0</ele><time>2026-04-29T06:52:27Z</time></trkpt><trkpt lat="39.78365901815892" lon="9.439773906476121"><ele>683.6666666666667</ele><time>2026-04-29T06:52:28Z</time></trkpt><trkpt lat="39.78371104109854" lon="9.439717765486645"><ele>684.3333333333334</ele><time>2026-04-29T06:52:29Z</time></trkpt><trkpt lat="39.78376906530817" lon="9.439641485615557"><ele>685.0</ele><time>2026-04-29T06:52:30Z</time></trkpt><trkpt lat="39.78383640113606" lon="9.43956824817957"><ele>685.0</ele><time>2026-04-29T06:52:31Z</time></trkpt><trkpt lat="39.78389641321054" lon="9.439496021169896"><ele>685.0</ele><time>2026-04-29T06:52:32Z</time></trkpt><trkpt lat="39.78395540959896" lon="9.439406151256492"><ele>685.0</ele><time>2026-04-29T06:52:33Z</time></trkpt><trkpt lat="39.78402091320055" lon="9.439310641279466"><ele>685.0</ele><time>2026-04-29T06:52:34Z</time></trkpt><trkpt lat="39.78407772724543" lon="9.439214161774418"><ele>685.0</ele><time>2026-04-29T06:52:35Z</time></trkpt><trkpt lat="39.78414900484053" lon="9.439119921056914"><ele>685.0</ele><time>2026-04-29T06:52:36Z</time></trkpt><trkpt lat="39.78420968138048" lon="9.439041902542415"><ele>685.0</ele><time>2026-04-29T06:52:37Z</time></trkpt><trkpt lat="39.78428127598114" lon="9.43898336990038"><ele>685.0</ele><time>2026-04-29T06:52:38Z</time></trkpt><trkpt lat="39.78437824319082" lon="9.43891122016873"><ele>685.0</ele><time>2026-04-29T06:52:40Z</time></trkpt><trkpt lat="39.78440731627578" lon="9.438826010005966"><ele>685.0</ele><time>2026-04-29T06:52:43Z</time></trkpt><trkpt lat="39.78437852185258" lon="9.438674894964784"><ele>685.2</ele><time>2026-04-29T06:52:45Z</time></trkpt><trkpt lat="39.78437192015358" lon="9.438585747555146"><ele>685.4</ele><time>2026-04-29T06:52:46Z</time></trkpt><trkpt lat="39.784414034200296" lon="9.43843139084225"><ele>685.5999999999999</ele><time>2026-04-29T06:52:48Z</time></trkpt><trkpt lat="39.78449518412032" lon="9.438330046857697"><ele>685.8</ele><time>2026-04-29T06:52:50Z</time></trkpt><trkpt lat="39.78462311419903" lon="9.438284198438046"><ele>686.0</ele><time>2026-04-29T06:52:52Z</time></trkpt><trkpt lat="39.78470131828157" lon="9.438279251857194"><ele>686.0</ele><time>2026-04-29T06:52:53Z</time></trkpt><trkpt lat="39.78477641758694" lon="9.438269370027554"><ele>686.0</ele><time>2026-04-29T06:52:54Z</time></trkpt><trkpt lat="39.784847061683195" lon="9.438241708419929"><ele>686.0</ele><time>2026-04-29T06:52:55Z</time></trkpt><trkpt lat="39.784904820466" lon="9.43820618376467"><ele>686.0</ele><time>2026-04-29T06:52:56Z</time></trkpt><trkpt lat="39.7849881008889" lon="9.43815235853444"><ele>686.0</ele><time>2026-04-29T06:52:58Z</time></trkpt><trkpt lat="39.78509172335329" lon="9.438157565044635"><ele>686.0</ele><time>2026-04-29T06:53:00Z</time></trkpt><trkpt lat="39.785158466315856" lon="9.438173354318371"><ele>686.5</ele><time>2026-04-29T06:53:01Z</time></trkpt><trkpt lat="39.78521826960984" lon="9.438204945608906"><ele>687.0</ele><time>2026-04-29T06:53:02Z</time></trkpt><trkpt lat="39.78528751633325" lon="9.438235069244858"><ele>687.5</ele><time>2026-04-29T06:53:03Z</time></trkpt><trkpt lat="39.78537141687111" lon="9.438271980030034"><ele>688.0</ele><time>2026-04-29T06:53:04Z</time></trkpt><trkpt lat="39.78545039585031" lon="9.438313826942014"><ele>688.5</ele><time>2026-04-29T06:53:05Z</time></trkpt><trkpt lat="39.7855242751589" lon="9.438357381088872"><ele>689.0</ele><time>2026-04-29T06:53:06Z</time></trkpt><trkpt lat="39.785603234086416" lon="9.43839662038067"><ele>689.0</ele><time>2026-04-29T06:53:07Z</time></trkpt><trkpt lat="39.785688690911634" lon="9.438435010231"><ele>689.0</ele><time>2026-04-29T06:53:08Z</time></trkpt><trkpt lat="39.785773454592096" lon="9.438463541132862"><ele>689.0</ele><time>2026-04-29T06:53:09.001Z</time></trkpt><trkpt lat="39.785862309740985" lon="9.438478266556501"><ele>689.0</ele><time>2026-04-29T06:53:10.001Z</time></trkpt><trkpt lat="39.78594180098122" lon="9.43848379951887"><ele>689.0</ele><time>2026-04-29T06:53:11.001Z</time></trkpt><trkpt lat="39.786023633545966" lon="9.438469391724102"><ele>689.0</ele><time>2026-04-29T06:53:12.001Z</time></trkpt><trkpt lat="39.786109580912814" lon="9.438444071498687"><ele>689.0</ele><time>2026-04-29T06:53:13.001Z</time></trkpt><trkpt lat="39.78620734190604" lon="9.438402111047058"><ele>689.0</ele><time>2026-04-29T06:53:14.001Z</time></trkpt><trkpt lat="39.78630577092894" lon="9.438358323573892"><ele>689.0</ele><time>2026-04-29T06:53:15.001Z</time></trkpt><trkpt lat="39.78640509335435" lon="9.438313928802598"><ele>689.0</ele><time>2026-04-29T06:53:16.001Z</time></trkpt><trkpt lat="39.786495728157504" lon="9.438261769589188"><ele>689.0</ele><time>2026-04-29T06:53:17.001Z</time></trkpt><trkpt lat="39.78657479827379" lon="9.438204936886807"><ele>689.0</ele><time>2026-04-29T06:53:18.001Z</time></trkpt><trkpt lat="39.78664822207183" lon="9.438172287783377"><ele>689.0</ele><time>2026-04-29T06:53:19.001Z</time></trkpt><trkpt lat="39.786725294967425" lon="9.438156802788434"><ele>689.0</ele><time>2026-04-29T06:53:20.001Z</time></trkpt><trkpt lat="39.78687602979346" lon="9.438203232833164"><ele>689.0</ele><time>2026-04-29T06:53:22.001Z</time></trkpt><trkpt lat="39.78694441338426" lon="9.438237115399279"><ele>689.0</ele><time>2026-04-29T06:53:23.001Z</time></trkpt><trkpt lat="39.78704610034034" lon="9.438302204273603"><ele>690.0</ele><time>2026-04-29T06:53:25.001Z</time></trkpt><trkpt lat="39.78710366599643" lon="9.438417677067914"><ele>691.0</ele><time>2026-04-29T06:53:27.001Z</time></trkpt><trkpt lat="39.78711054227712" lon="9.438502069507532"><ele>692.0</ele><time>2026-04-29T06:53:28.001Z</time></trkpt><trkpt lat="39.78709997684951" lon="9.438589371410524"><ele>693.0</ele><time>2026-04-29T06:53:29.001Z</time></trkpt><trkpt lat="39.787061541592706" lon="9.438656841801532"><ele>694.0</ele><time>2026-04-29T06:53:30.001Z</time></trkpt><trkpt lat="39.78695348181119" lon="9.438751010214457"><ele>695.0</ele><time>2026-04-29T06:53:32.001Z</time></trkpt><trkpt lat="39.78688775863772" lon="9.43881404344873"><ele>693.8</ele><time>2026-04-29T06:53:33.001Z</time></trkpt><trkpt lat="39.786822517042836" lon="9.438883253366797"><ele>692.6</ele><time>2026-04-29T06:53:34.001Z</time></trkpt><trkpt lat="39.78677378666798" lon="9.438968920438759"><ele>691.4000000000001</ele><time>2026-04-29T06:53:35.001Z</time></trkpt><trkpt lat="39.78671756743282" lon="9.4390642315858"><ele>690.2</ele><time>2026-04-29T06:53:36.001Z</time></trkpt><trkpt lat="39.78664954350438" lon="9.439167100630833"><ele>689.0</ele><time>2026-04-29T06:53:37.001Z</time></trkpt><trkpt lat="39.78659002552219" lon="9.439258362789621"><ele>689.0</ele><time>2026-04-29T06:53:38.001Z</time></trkpt><trkpt lat="39.786540481601904" lon="9.439367173888076"><ele>689.0</ele><time>2026-04-29T06:53:39.001Z</time></trkpt><trkpt lat="39.786502936267816" lon="9.439465689361741"><ele>689.0</ele><time>2026-04-29T06:53:40.001Z</time></trkpt><trkpt lat="39.78645473718819" lon="9.439551754054762"><ele>689.0</ele><time>2026-04-29T06:53:41.001Z</time></trkpt><trkpt lat="39.7864053171263" lon="9.439637919998308"><ele>689.0</ele><time>2026-04-29T06:53:42.001Z</time></trkpt><trkpt lat="39.786374242015306" lon="9.43971390305345"><ele>689.0</ele><time>2026-04-29T06:53:43.001Z</time></trkpt><trkpt lat="39.7863620102645" lon="9.439800325102842"><ele>689.6</ele><time>2026-04-29T06:53:44.001Z</time></trkpt><trkpt lat="39.78636727864673" lon="9.439914297744792"><ele>690.2</ele><time>2026-04-29T06:53:45.001Z</time></trkpt><trkpt lat="39.78637473037345" lon="9.44004456446846"><ele>690.8000000000001</ele><time>2026-04-29T06:53:46.001Z</time></trkpt><trkpt lat="39.786369030631995" lon="9.440166303161524"><ele>691.4000000000001</ele><time>2026-04-29T06:53:47.001Z</time></trkpt><trkpt lat="39.78634982851416" lon="9.440290084530815"><ele>692.0</ele><time>2026-04-29T06:53:48.001Z</time></trkpt><trkpt lat="39.78634717569687" lon="9.440394897253949"><ele>691.4000000000001</ele><time>2026-04-29T06:53:49.001Z</time></trkpt><trkpt lat="39.786366106224925" lon="9.44049142196911"><ele>690.8000000000001</ele><time>2026-04-29T06:53:50.001Z</time></trkpt><trkpt lat="39.786395543369764" lon="9.440608115346471"><ele>690.2</ele><time>2026-04-29T06:53:51Z</time></trkpt><trkpt lat="39.78641886803227" lon="9.440740701654116"><ele>689.6</ele><time>2026-04-29T06:53:52Z</time></trkpt><trkpt lat="39.786442751705714" lon="9.440882154208968"><ele>689.0</ele><time>2026-04-29T06:53:53Z</time></trkpt><trkpt lat="39.78645574859806" lon="9.44102913011044"><ele>689.0</ele><time>2026-04-29T06:53:54Z</time></trkpt><trkpt lat="39.78646309486447" lon="9.441183241700946"><ele>689.0</ele><time>2026-04-29T06:53:55Z</time></trkpt><trkpt lat="39.78647634667686" lon="9.441324749885574"><ele>689.0</ele><time>2026-04-29T06:53:56Z</time></trkpt><trkpt lat="39.78649023739362" lon="9.441455458906475"><ele>689.0</ele><time>2026-04-29T06:53:57Z</time></trkpt><trkpt lat="39.78652116593755" lon="9.441566800796899"><ele>689.0</ele><time>2026-04-29T06:53:58.001Z</time></trkpt><trkpt lat="39.78656287323407" lon="9.44165467864012"><ele>687.8000000000001</ele><time>2026-04-29T06:53:59.001Z</time></trkpt><trkpt lat="39.78661677409043" lon="9.44173008304509"><ele>686.6</ele><time>2026-04-29T06:54:00Z</time></trkpt><trkpt lat="39.78665407672175" lon="9.441815695385658"><ele>685.4</ele><time>2026-04-29T06:54:01Z</time></trkpt><trkpt lat="39.786637688420974" lon="9.441978116462359"><ele>684.2</ele><time>2026-04-29T06:54:03Z</time></trkpt><trkpt lat="39.786633331543456" lon="9.442097660178085"><ele>683.0</ele><time>2026-04-29T06:54:04Z</time></trkpt><trkpt lat="39.78661951588952" lon="9.442212666559426"><ele>682.2</ele><time>2026-04-29T06:54:05Z</time></trkpt><trkpt lat="39.78662646441467" lon="9.442319693070203"><ele>681.4</ele><time>2026-04-29T06:54:06Z</time></trkpt><trkpt lat="39.786644147382816" lon="9.44242290865852"><ele>680.6</ele><time>2026-04-29T06:54:07Z</time></trkpt><trkpt lat="39.78667654748206" lon="9.442541462118111"><ele>679.8000000000001</ele><time>2026-04-29T06:54:08Z</time></trkpt><trkpt lat="39.786720110518445" lon="9.442661963146488"><ele>679.0</ele><time>2026-04-29T06:54:09Z</time></trkpt><trkpt lat="39.78677220645416" lon="9.44278887918651"><ele>679.0</ele><time>2026-04-29T06:54:10Z</time></trkpt><trkpt lat="39.78683457045325" lon="9.44291673631574"><ele>679.0</ele><time>2026-04-29T06:54:11Z</time></trkpt><trkpt lat="39.786860325553214" lon="9.443050737381833"><ele>679.0</ele><time>2026-04-29T06:54:12Z</time></trkpt><trkpt lat="39.786875175422935" lon="9.443169053628523"><ele>679.0</ele><time>2026-04-29T06:54:13Z</time></trkpt><trkpt lat="39.78686988349251" lon="9.4433024626087"><ele>679.0</ele><time>2026-04-29T06:54:14Z</time></trkpt><trkpt lat="39.786863282373304" lon="9.443443130183136"><ele>681.5</ele><time>2026-04-29T06:54:15Z</time></trkpt><trkpt lat="39.78685740847987" lon="9.443602974685007"><ele>684.0</ele><time>2026-04-29T06:54:16Z</time></trkpt><trkpt lat="39.78686593515364" lon="9.443781421522342"><ele>686.5</ele><time>2026-04-29T06:54:17Z</time></trkpt><trkpt lat="39.78688109533524" lon="9.443940654117045"><ele>689.0</ele><time>2026-04-29T06:54:18Z</time></trkpt><trkpt lat="39.78689366332678" lon="9.444088857787023"><ele>689.0</ele><time>2026-04-29T06:54:19Z</time></trkpt><trkpt lat="39.786917258383305" lon="9.444204106080695"><ele>689.0</ele><time>2026-04-29T06:54:20Z</time></trkpt><trkpt lat="39.78695520207963" lon="9.44430472866923"><ele>689.0</ele><time>2026-04-29T06:54:21Z</time></trkpt><trkpt lat="39.787004854772256" lon="9.444415901579841"><ele>689.0</ele><time>2026-04-29T06:54:22Z</time></trkpt><trkpt lat="39.787062198868554" lon="9.444527046168602"><ele>689.0</ele><time>2026-04-29T06:54:23Z</time></trkpt><trkpt lat="39.787122220953954" lon="9.444629151614476"><ele>686.5</ele><time>2026-04-29T06:54:24Z</time></trkpt><trkpt lat="39.78717938207155" lon="9.44471758972808"><ele>684.0</ele><time>2026-04-29T06:54:25Z</time></trkpt><trkpt lat="39.78722782289166" lon="9.444789657389816"><ele>681.5</ele><time>2026-04-29T06:54:26Z</time></trkpt><trkpt lat="39.78728213657484" lon="9.444847245546121"><ele>679.0</ele><time>2026-04-29T06:54:27Z</time></trkpt><trkpt lat="39.78736291868635" lon="9.444876951408853"><ele>676.5</ele><time>2026-04-29T06:54:28Z</time></trkpt><trkpt lat="39.78747428388796" lon="9.444811825697757"><ele>674.0</ele><time>2026-04-29T06:54:30Z</time></trkpt><trkpt lat="39.78756430066005" lon="9.444788405254018"><ele>674.0</ele><time>2026-04-29T06:54:31Z</time></trkpt><trkpt lat="39.787632805070174" lon="9.444718196707509"><ele>674.0</ele><time>2026-04-29T06:54:32Z</time></trkpt><trkpt lat="39.787721347660565" lon="9.44470207889646"><ele>674.0</ele><time>2026-04-29T06:54:33Z</time></trkpt><trkpt lat="39.787786951688076" lon="9.444654856004162"><ele>674.0</ele><time>2026-04-29T06:54:34Z</time></trkpt><trkpt lat="39.78785001720378" lon="9.444632989128452"><ele>674.0</ele><time>2026-04-29T06:54:35Z</time></trkpt><trkpt lat="39.78791866686628" lon="9.444615683011502"><ele>674.0</ele><time>2026-04-29T06:54:36Z</time></trkpt><trkpt lat="39.78799271428788" lon="9.444597700232297"><ele>675.8000000000001</ele><time>2026-04-29T06:54:37Z</time></trkpt><trkpt lat="39.788091658497656" lon="9.444587314143229"><ele>677.6</ele><time>2026-04-29T06:54:39Z</time></trkpt><trkpt lat="39.78815290611689" lon="9.444636487065694"><ele>679.4</ele><time>2026-04-29T06:54:44Z</time></trkpt><trkpt lat="39.78818833843626" lon="9.444712661022175"><ele>681.2</ele><time>2026-04-29T06:54:47Z</time></trkpt><trkpt lat="39.78823752252569" lon="9.44480607372175"><ele>683.0</ele><time>2026-04-29T06:54:49Z</time></trkpt><trkpt lat="39.788186154336834" lon="9.445031141635791"><ele>683.0</ele><time>2026-04-29T06:54:51Z</time></trkpt><trkpt lat="39.78820127067239" lon="9.445173119853932"><ele>683.0</ele><time>2026-04-29T06:54:53.001Z</time></trkpt><trkpt lat="39.78821813862764" lon="9.445269079794594"><ele>683.0</ele><time>2026-04-29T06:54:54.001Z</time></trkpt><trkpt lat="39.78820296288913" lon="9.445368655903831"><ele>683.0</ele><time>2026-04-29T06:54:55.001Z</time></trkpt><trkpt lat="39.788195834330274" lon="9.4454564611848"><ele>683.0</ele><time>2026-04-29T06:54:56.001Z</time></trkpt><trkpt lat="39.78820027732656" lon="9.445556539725105"><ele>683.0</ele><time>2026-04-29T06:54:57.001Z</time></trkpt><trkpt lat="39.78819717209772" lon="9.445664529679402"><ele>683.5</ele><time>2026-04-29T06:54:58.001Z</time></trkpt><trkpt lat="39.78818504558832" lon="9.445769551016324"><ele>684.0</ele><time>2026-04-29T06:54:59.001Z</time></trkpt><trkpt lat="39.788184682322246" lon="9.445870259143224"><ele>684.5</ele><time>2026-04-29T06:55:00.001Z</time></trkpt><trkpt lat="39.78818317341195" lon="9.445960419174943"><ele>685.0</ele><time>2026-04-29T06:55:01.001Z</time></trkpt><trkpt lat="39.7881962833779" lon="9.44607547627984"><ele>685.5</ele><time>2026-04-29T06:55:02.001Z</time></trkpt><trkpt lat="39.788191694859705" lon="9.446186779539348"><ele>686.0</ele><time>2026-04-29T06:55:03.001Z</time></trkpt><trkpt lat="39.7881862356389" lon="9.446291035417744"><ele>686.3333333333333</ele><time>2026-04-29T06:55:04.001Z</time></trkpt><trkpt lat="39.78816580978121" lon="9.446417186608153"><ele>686.6666666666666</ele><time>2026-04-29T06:55:05.001Z</time></trkpt><trkpt lat="39.788149343195904" lon="9.446524288792439"><ele>687.0</ele><time>2026-04-29T06:55:06.001Z</time></trkpt><trkpt lat="39.78813133605129" lon="9.446638082677504"><ele>687.3333333333334</ele><time>2026-04-29T06:55:07.001Z</time></trkpt><trkpt lat="39.788117354882374" lon="9.446756640282214"><ele>687.6666666666667</ele><time>2026-04-29T06:55:08.001Z</time></trkpt><trkpt lat="39.78811567111961" lon="9.446863125349731"><ele>688.0</ele><time>2026-04-29T06:55:09.001Z</time></trkpt><trkpt lat="39.78812800888435" lon="9.446972545658612"><ele>688.0</ele><time>2026-04-29T06:55:10.001Z</time></trkpt><trkpt lat="39.78816153109974" lon="9.447072559926806"><ele>688.0</ele><time>2026-04-29T06:55:11.001Z</time></trkpt><trkpt lat="39.78820439987944" lon="9.447144948924004"><ele>688.0</ele><time>2026-04-29T06:55:12.001Z</time></trkpt><trkpt lat="39.788247804308426" lon="9.447230090251171"><ele>688.0</ele><time>2026-04-29T06:55:13.001Z</time></trkpt><trkpt lat="39.7883043805695" lon="9.447318746742035"><ele>688.0</ele><time>2026-04-29T06:55:14.001Z</time></trkpt><trkpt lat="39.78836647105764" lon="9.447400864481672"><ele>688.0</ele><time>2026-04-29T06:55:15.001Z</time></trkpt><trkpt lat="39.78842708967192" lon="9.44746895518991"><ele>688.0</ele><time>2026-04-29T06:55:16.001Z</time></trkpt><trkpt lat="39.78848904359077" lon="9.447532630006341"><ele>688.0</ele><time>2026-04-29T06:55:17.001Z</time></trkpt><trkpt lat="39.788555188367084" lon="9.447592673833203"><ele>688.0</ele><time>2026-04-29T06:55:18.001Z</time></trkpt><trkpt lat="39.78861146654557" lon="9.447629955867647"><ele>688.0</ele><time>2026-04-29T06:55:19.001Z</time></trkpt><trkpt lat="39.788710064942116" lon="9.447644809675111"><ele>688.0</ele><time>2026-04-29T06:55:21.001Z</time></trkpt><trkpt lat="39.78877684151325" lon="9.447640539271802"><ele>688.0</ele><time>2026-04-29T06:55:22.001Z</time></trkpt><trkpt lat="39.788841255626984" lon="9.447629408882332"><ele>689.0</ele><time>2026-04-29T06:55:23.001Z</time></trkpt><trkpt lat="39.78891104312448" lon="9.447625269512057"><ele>690.0</ele><time>2026-04-29T06:55:24.001Z</time></trkpt><trkpt lat="39.78898934857053" lon="9.447628338662597"><ele>691.0</ele><time>2026-04-29T06:55:25.001Z</time></trkpt><trkpt lat="39.78905829908088" lon="9.447636218349684"><ele>692.0</ele><time>2026-04-29T06:55:26.001Z</time></trkpt><trkpt lat="39.789148057263645" lon="9.447636083620147"><ele>693.0</ele><time>2026-04-29T06:55:27.001Z</time></trkpt><trkpt lat="39.789268811970594" lon="9.447655308979478"><ele>694.0</ele><time>2026-04-29T06:55:29.001Z</time></trkpt><trkpt lat="39.78937977104565" lon="9.44762492002268"><ele>694.8000000000001</ele><time>2026-04-29T06:55:31.001Z</time></trkpt><trkpt lat="39.78950600540011" lon="9.44759777995677"><ele>695.6</ele><time>2026-04-29T06:55:33.001Z</time></trkpt><trkpt lat="39.789570817236786" lon="9.447594284519303"><ele>696.4</ele><time>2026-04-29T06:55:34.001Z</time></trkpt><trkpt lat="39.78969977055659" lon="9.447614938863016"><ele>697.2</ele><time>2026-04-29T06:55:36.001Z</time></trkpt><trkpt lat="39.78977182208928" lon="9.447628164502444"><ele>698.0</ele><time>2026-04-29T06:55:37.001Z</time></trkpt><trkpt lat="39.78984980176401" lon="9.447642509181799"><ele>698.0</ele><time>2026-04-29T06:55:38.001Z</time></trkpt><trkpt lat="39.789945244122954" lon="9.447637612045972"><ele>698.0</ele><time>2026-04-29T06:55:39.001Z</time></trkpt><trkpt lat="39.79001716282022" lon="9.447619879029816"><ele>698.0</ele><time>2026-04-29T06:55:40.001Z</time></trkpt><trkpt lat="39.79011429843752" lon="9.447581288490255"><ele>698.0</ele><time>2026-04-29T06:55:41.001Z</time></trkpt><trkpt lat="39.79018829398102" lon="9.447547992138487"><ele>698.0</ele><time>2026-04-29T06:55:42.001Z</time></trkpt><trkpt lat="39.7902534992458" lon="9.447494543447691"><ele>698.0</ele><time>2026-04-29T06:55:43.001Z</time></trkpt><trkpt lat="39.79037871166059" lon="9.447433945383954"><ele>698.0</ele><time>2026-04-29T06:55:45.001Z</time></trkpt><trkpt lat="39.79046419693345" lon="9.447414191005228"><ele>698.0</ele><time>2026-04-29T06:55:46.001Z</time></trkpt><trkpt lat="39.79054504213874" lon="9.447399168379064"><ele>698.0</ele><time>2026-04-29T06:55:47.001Z</time></trkpt><trkpt lat="39.79063262439905" lon="9.447388499238421"><ele>698.0</ele><time>2026-04-29T06:55:48.001Z</time></trkpt><trkpt lat="39.79069966745568" lon="9.447362251544003"><ele>698.0</ele><time>2026-04-29T06:55:49.001Z</time></trkpt><trkpt lat="39.79076153015542" lon="9.447322009568444"><ele>698.0</ele><time>2026-04-29T06:55:50.001Z</time></trkpt><trkpt lat="39.790867551000346" lon="9.447323052667429"><ele>698.0</ele><time>2026-04-29T06:55:52.001Z</time></trkpt><trkpt lat="39.79093633366816" lon="9.447372834015823"><ele>698.0</ele><time>2026-04-29T06:55:54.001Z</time></trkpt><trkpt lat="39.7909906830821" lon="9.447429176867933"><ele>698.0</ele><time>2026-04-29T06:55:55.001Z</time></trkpt><trkpt lat="39.79106507716703" lon="9.447502223875407"><ele>698.0</ele><time>2026-04-29T06:55:56Z</time></trkpt><trkpt lat="39.79114328520984" lon="9.447549854795605"><ele>698.0</ele><time>2026-04-29T06:55:57Z</time></trkpt><trkpt lat="39.79120509533402" lon="9.447581752740424"><ele>698.0</ele><time>2026-04-29T06:55:58Z</time></trkpt><trkpt lat="39.79131863936176" lon="9.447564406778463"><ele>699.4</ele><time>2026-04-29T06:56:00Z</time></trkpt><trkpt lat="39.79145837804986" lon="9.447542098389532"><ele>700.8</ele><time>2026-04-29T06:56:02Z</time></trkpt><trkpt lat="39.79153340676394" lon="9.447527309275692"><ele>702.2</ele><time>2026-04-29T06:56:03Z</time></trkpt><trkpt lat="39.791644145395146" lon="9.447471110419755"><ele>703.6</ele><time>2026-04-29T06:56:05Z</time></trkpt><trkpt lat="39.791689362748116" lon="9.447410132143784"><ele>705.0</ele><time>2026-04-29T06:56:06Z</time></trkpt><trkpt lat="39.791705599203965" lon="9.447283031412237"><ele>705.0</ele><time>2026-04-29T06:56:08Z</time></trkpt><trkpt lat="39.79169041145515" lon="9.447150441095323"><ele>705.0</ele><time>2026-04-29T06:56:10Z</time></trkpt><trkpt lat="39.79175480834757" lon="9.447031299409584"><ele>705.0</ele><time>2026-04-29T06:56:12Z</time></trkpt><trkpt lat="39.791817956031196" lon="9.446901733033526"><ele>705.0</ele><time>2026-04-29T06:56:14Z</time></trkpt><trkpt lat="39.791841156920654" lon="9.44681532014325"><ele>705.0</ele><time>2026-04-29T06:56:15Z</time></trkpt><trkpt lat="39.79189918659587" lon="9.446689990426915"><ele>707.1666666666666</ele><time>2026-04-29T06:56:17Z</time></trkpt><trkpt lat="39.791966265707224" lon="9.446636990008438"><ele>709.3333333333334</ele><time>2026-04-29T06:56:19Z</time></trkpt><trkpt lat="39.792032906367695" lon="9.446577245183525"><ele>711.5</ele><time>2026-04-29T06:56:21Z</time></trkpt><trkpt lat="39.79209756041221" lon="9.446538441656564"><ele>713.6666666666667</ele><time>2026-04-29T06:56:23Z</time></trkpt><trkpt lat="39.79218455231823" lon="9.4465189453377"><ele>715.8333333333334</ele><time>2026-04-29T06:56:25Z</time></trkpt><trkpt lat="39.79226426289492" lon="9.446530270303247"><ele>718.0</ele><time>2026-04-29T06:56:28Z</time></trkpt><trkpt lat="39.792204746641126" lon="9.446600114042651"><ele>718.0</ele><time>2026-04-29T06:56:31Z</time></trkpt><trkpt lat="39.79213852031399" lon="9.446684567072719"><ele>718.0</ele><time>2026-04-29T06:56:33Z</time></trkpt><trkpt lat="39.79208143010154" lon="9.446783621144723"><ele>718.0</ele><time>2026-04-29T06:56:35Z</time></trkpt><trkpt lat="39.792046221442696" lon="9.44688149551119"><ele>718.0</ele><time>2026-04-29T06:56:37Z</time></trkpt><trkpt lat="39.792072152946034" lon="9.44697400441499"><ele>718.0</ele><time>2026-04-29T06:56:39Z</time></trkpt><trkpt lat="39.79215650667061" lon="9.447008859979448"><ele>718.0</ele><time>2026-04-29T06:56:41Z</time></trkpt><trkpt lat="39.79225304849207" lon="9.44695081005487"><ele>718.0</ele><time>2026-04-29T06:56:43Z</time></trkpt><trkpt lat="39.792345318295105" lon="9.446884303529044"><ele>718.0</ele><time>2026-04-29T06:56:45Z</time></trkpt><trkpt lat="39.792424920322055" lon="9.446848378275316"><ele>718.0</ele><time>2026-04-29T06:56:47Z</time></trkpt><trkpt lat="39.79254118731705" lon="9.446825043067998"><ele>718.0</ele><time>2026-04-29T06:56:49Z</time></trkpt><trkpt lat="39.7926411076773" lon="9.446834077774664"><ele>718.0</ele><time>2026-04-29T06:56:51Z</time></trkpt><trkpt lat="39.7927594605777" lon="9.446851659814923"><ele>719.4</ele><time>2026-04-29T06:56:53Z</time></trkpt><trkpt lat="39.79287838955979" lon="9.446849506443396"><ele>720.8</ele><time>2026-04-29T06:56:55Z</time></trkpt><trkpt lat="39.79294728810964" lon="9.44685429573559"><ele>722.2</ele><time>2026-04-29T06:56:56Z</time></trkpt><trkpt lat="39.7930730969248" lon="9.446880830305489"><ele>723.6</ele><time>2026-04-29T06:56:58Z</time></trkpt><trkpt lat="39.79315836506916" lon="9.44690933350584"><ele>725.0</ele><time>2026-04-29T06:56:59Z</time></trkpt><trkpt lat="39.793230553142344" lon="9.446925727381672"><ele>725.0</ele><time>2026-04-29T06:57:00Z</time></trkpt><trkpt lat="39.79331296642695" lon="9.446965527557946"><ele>725.0</ele><time>2026-04-29T06:57:01Z</time></trkpt><trkpt lat="39.79339909886935" lon="9.446992118110828"><ele>725.0</ele><time>2026-04-29T06:57:02Z</time></trkpt><trkpt lat="39.79348559609568" lon="9.446999526483241"><ele>725.0</ele><time>2026-04-29T06:57:03Z</time></trkpt><trkpt lat="39.79357242036854" lon="9.446989565251323"><ele>725.0</ele><time>2026-04-29T06:57:04Z</time></trkpt><trkpt lat="39.79365430737511" lon="9.446964357957317"><ele>725.0</ele><time>2026-04-29T06:57:05Z</time></trkpt><trkpt lat="39.79372155683068" lon="9.44693573122356"><ele>726.0</ele><time>2026-04-29T06:57:06Z</time></trkpt><trkpt lat="39.79379821951713" lon="9.446908317733078"><ele>727.0</ele><time>2026-04-29T06:57:07Z</time></trkpt><trkpt lat="39.7938720650981" lon="9.44687607171235"><ele>728.0</ele><time>2026-04-29T06:57:08Z</time></trkpt><trkpt lat="39.793995748178766" lon="9.44678013706378"><ele>729.0</ele><time>2026-04-29T06:57:10Z</time></trkpt><trkpt lat="39.79407689291518" lon="9.446750131174499"><ele>730.0</ele><time>2026-04-29T06:57:11Z</time></trkpt><trkpt lat="39.794146767863765" lon="9.446721381955921"><ele>730.0</ele><time>2026-04-29T06:57:12Z</time></trkpt><trkpt lat="39.794227141750284" lon="9.446712930147957"><ele>730.0</ele><time>2026-04-29T06:57:13Z</time></trkpt><trkpt lat="39.79430950447589" lon="9.446701387464712"><ele>730.0</ele><time>2026-04-29T06:57:14Z</time></trkpt><trkpt lat="39.79437735692469" lon="9.446708032065525"><ele>730.0</ele><time>2026-04-29T06:57:15Z</time></trkpt><trkpt lat="39.79451403545799" lon="9.446756838768357"><ele>730.0</ele><time>2026-04-29T06:57:17Z</time></trkpt><trkpt lat="39.7945759380977" lon="9.44679738934079"><ele>730.0</ele><time>2026-04-29T06:57:18Z</time></trkpt><trkpt lat="39.79468556947927" lon="9.446836609180039"><ele>730.6</ele><time>2026-04-29T06:57:20Z</time></trkpt><trkpt lat="39.79474442643119" lon="9.446805822765615"><ele>731.2</ele><time>2026-04-29T06:57:22Z</time></trkpt><trkpt lat="39.79481949820518" lon="9.446722278691645"><ele>731.8</ele><time>2026-04-29T06:57:24Z</time></trkpt><trkpt lat="39.79491921495931" lon="9.446620366623874"><ele>732.4</ele><time>2026-04-29T06:57:26Z</time></trkpt><trkpt lat="39.7950477246261" lon="9.446538370577988"><ele>733.0</ele><time>2026-04-29T06:57:28Z</time></trkpt><trkpt lat="39.79513175751848" lon="9.446522878766052"><ele>733.5</ele><time>2026-04-29T06:57:29Z</time></trkpt><trkpt lat="39.795198093414236" lon="9.446472846301525"><ele>734.0</ele><time>2026-04-29T06:57:30Z</time></trkpt><trkpt lat="39.79528277580015" lon="9.446419936055264"><ele>734.5</ele><time>2026-04-29T06:57:31Z</time></trkpt><trkpt lat="39.79535092930521" lon="9.446374919996064"><ele>735.0</ele><time>2026-04-29T06:57:32Z</time></trkpt><trkpt lat="39.795422448636806" lon="9.446321104465733"><ele>735.5</ele><time>2026-04-29T06:57:33Z</time></trkpt><trkpt lat="39.79549113494395" lon="9.446260379232298"><ele>736.0</ele><time>2026-04-29T06:57:34Z</time></trkpt><trkpt lat="39.79555948277196" lon="9.446214571541336"><ele>734.4</ele><time>2026-04-29T06:57:35Z</time></trkpt><trkpt lat="39.79563625977288" lon="9.44619266923293"><ele>732.8</ele><time>2026-04-29T06:57:36Z</time></trkpt><trkpt lat="39.795717205698665" lon="9.44615409132955"><ele>731.1999999999999</ele><time>2026-04-29T06:57:37Z</time></trkpt><trkpt lat="39.7957971602317" lon="9.44613839253811"><ele>729.5999999999999</ele><time>2026-04-29T06:57:38Z</time></trkpt><trkpt lat="39.79586210526632" lon="9.446115672035631"><ele>728.0</ele><time>2026-04-29T06:57:39Z</time></trkpt><trkpt lat="39.795994354302174" lon="9.446028635706181"><ele>729.8</ele><time>2026-04-29T06:57:41Z</time></trkpt><trkpt lat="39.79606915425791" lon="9.445959444986784"><ele>731.5999999999999</ele><time>2026-04-29T06:57:42Z</time></trkpt><trkpt lat="39.79614925668491" lon="9.44590093943672"><ele>733.4000000000001</ele><time>2026-04-29T06:57:43Z</time></trkpt><trkpt lat="39.796226607860206" lon="9.445838808126595"><ele>735.2</ele><time>2026-04-29T06:57:44Z</time></trkpt><trkpt lat="39.79631177199988" lon="9.4457725488722"><ele>737.0</ele><time>2026-04-29T06:57:45Z</time></trkpt><trkpt lat="39.79638488183537" lon="9.445714041535918"><ele>737.0</ele><time>2026-04-29T06:57:46Z</time></trkpt><trkpt lat="39.7964426265424" lon="9.445664000229645"><ele>737.0</ele><time>2026-04-29T06:57:47Z</time></trkpt><trkpt lat="39.79655450161022" lon="9.445631267568618"><ele>737.0</ele><time>2026-04-29T06:57:49Z</time></trkpt><trkpt lat="39.79664953083175" lon="9.445666572397517"><ele>737.0</ele><time>2026-04-29T06:57:51Z</time></trkpt><trkpt lat="39.79677419669175" lon="9.445687044895791"><ele>737.0</ele><time>2026-04-29T06:57:53Z</time></trkpt><trkpt lat="39.7968840979696" lon="9.44564833916738"><ele>737.5</ele><time>2026-04-29T06:57:55Z</time></trkpt><trkpt lat="39.79695577914086" lon="9.445628678950275"><ele>738.0</ele><time>2026-04-29T06:57:56Z</time></trkpt><trkpt lat="39.79702647893256" lon="9.445583086472361"><ele>738.5</ele><time>2026-04-29T06:57:57Z</time></trkpt><trkpt lat="39.797107809445265" lon="9.445557101941233"><ele>739.0</ele><time>2026-04-29T06:57:58Z</time></trkpt><trkpt lat="39.797172140848325" lon="9.445508952397715"><ele>739.5</ele><time>2026-04-29T06:57:59Z</time></trkpt><trkpt lat="39.79723989532025" lon="9.445479934115674"><ele>740.0</ele><time>2026-04-29T06:58:00Z</time></trkpt><trkpt lat="39.79731441663903" lon="9.445444086716952"><ele>740.0</ele><time>2026-04-29T06:58:01Z</time></trkpt><trkpt lat="39.79741993590759" lon="9.445404939367783"><ele>740.0</ele><time>2026-04-29T06:58:02.999Z</time></trkpt><trkpt lat="39.79751250212695" lon="9.445414519314578"><ele>740.0</ele><time>2026-04-29T06:58:03.999Z</time></trkpt><trkpt lat="39.79763060531022" lon="9.445426426601976"><ele>740.0</ele><time>2026-04-29T06:58:06Z</time></trkpt><trkpt lat="39.79778014073343" lon="9.445433495721849"><ele>740.6666666666666</ele><time>2026-04-29T06:58:07.999Z</time></trkpt><trkpt lat="39.79784668653515" lon="9.44541723278654"><ele>741.3333333333333</ele><time>2026-04-29T06:58:08.999Z</time></trkpt><trkpt lat="39.79791197878536" lon="9.445404887185154"><ele>742.0</ele><time>2026-04-29T06:58:09.999Z</time></trkpt><trkpt lat="39.79798793689727" lon="9.445363349173673"><ele>742.6666666666666</ele><time>2026-04-29T06:58:11Z</time></trkpt><trkpt lat="39.79804230273009" lon="9.445300718984656"><ele>743.3333333333334</ele><time>2026-04-29T06:58:12Z</time></trkpt><trkpt lat="39.7981008392145" lon="9.445219536397092"><ele>744.0</ele><time>2026-04-29T06:58:13Z</time></trkpt><trkpt lat="39.798150294036546" lon="9.445141865223832"><ele>744.0</ele><time>2026-04-29T06:58:14Z</time></trkpt><trkpt lat="39.79821393007629" lon="9.445064908592775"><ele>744.0</ele><time>2026-04-29T06:58:15Z</time></trkpt><trkpt lat="39.79827745507473" lon="9.445003418037114"><ele>744.0</ele><time>2026-04-29T06:58:16Z</time></trkpt><trkpt lat="39.798323482063516" lon="9.444937083433699"><ele>744.0</ele><time>2026-04-29T06:58:17Z</time></trkpt><trkpt lat="39.7983674923391" lon="9.444861335991156"><ele>744.0</ele><time>2026-04-29T06:58:18Z</time></trkpt><trkpt lat="39.798406780158786" lon="9.444784985071163"><ele>744.0</ele><time>2026-04-29T06:58:19Z</time></trkpt><trkpt lat="39.79845016926768" lon="9.444711171850855"><ele>744.0</ele><time>2026-04-29T06:58:20Z</time></trkpt><trkpt lat="39.79849749462298" lon="9.444654232573848"><ele>744.0</ele><time>2026-04-29T06:58:21Z</time></trkpt><trkpt lat="39.79859149418849" lon="9.444600511776693"><ele>744.0</ele><time>2026-04-29T06:58:23Z</time></trkpt><trkpt lat="39.798699574415544" lon="9.444613672780822"><ele>744.0</ele><time>2026-04-29T06:58:25Z</time></trkpt><trkpt lat="39.798760158880285" lon="9.444638850851211"><ele>744.0</ele><time>2026-04-29T06:58:26Z</time></trkpt><trkpt lat="39.79882441994862" lon="9.444672519784433"><ele>744.0</ele><time>2026-04-29T06:58:27Z</time></trkpt><trkpt lat="39.798899717601536" lon="9.444735041094267"><ele>744.8000000000001</ele><time>2026-04-29T06:58:28Z</time></trkpt><trkpt lat="39.79897528021401" lon="9.4448013608046"><ele>745.6</ele><time>2026-04-29T06:58:29Z</time></trkpt><trkpt lat="39.799057175257595" lon="9.444872477643575"><ele>746.4</ele><time>2026-04-29T06:58:30Z</time></trkpt><trkpt lat="39.799137895350086" lon="9.444930005963693"><ele>747.2</ele><time>2026-04-29T06:58:31Z</time></trkpt><trkpt lat="39.7992241062969" lon="9.444976691658415"><ele>748.0</ele><time>2026-04-29T06:58:32Z</time></trkpt><trkpt lat="39.79931073450982" lon="9.444994735687633"><ele>748.1666666666667</ele><time>2026-04-29T06:58:33Z</time></trkpt><trkpt lat="39.799383462464945" lon="9.444994215401103"><ele>748.3333333333334</ele><time>2026-04-29T06:58:34Z</time></trkpt><trkpt lat="39.79944540590864" lon="9.444975146728893"><ele>748.5</ele><time>2026-04-29T06:58:35Z</time></trkpt><trkpt lat="39.79954733587723" lon="9.444920063618035"><ele>748.6666666666666</ele><time>2026-04-29T06:58:37Z</time></trkpt><trkpt lat="39.799644146931406" lon="9.444871124333467"><ele>748.8333333333333</ele><time>2026-04-29T06:58:39Z</time></trkpt><trkpt lat="39.79970685184531" lon="9.44483818339279"><ele>749.0</ele><time>2026-04-29T06:58:40Z</time></trkpt><trkpt lat="39.799770760998825" lon="9.44478823251337"><ele>749.0</ele><time>2026-04-29T06:58:41Z</time></trkpt><trkpt lat="39.7998426496781" lon="9.444751529255297"><ele>749.0</ele><time>2026-04-29T06:58:42Z</time></trkpt><trkpt lat="39.79990521547276" lon="9.444711436668989"><ele>749.0</ele><time>2026-04-29T06:58:43Z</time></trkpt><trkpt lat="39.80000567065127" lon="9.444684101705732"><ele>749.0</ele><time>2026-04-29T06:58:45Z</time></trkpt><trkpt lat="39.80009224692023" lon="9.44468298201729"><ele>749.0</ele><time>2026-04-29T06:58:47Z</time></trkpt><trkpt lat="39.80015215333396" lon="9.444746259346735"><ele>749.0</ele><time>2026-04-29T06:58:49Z</time></trkpt><trkpt lat="39.80023782955135" lon="9.44485588525796"><ele>749.8333333333333</ele><time>2026-04-29T06:58:51Z</time></trkpt><trkpt lat="39.800284040822035" lon="9.444923569748035"><ele>750.6666666666666</ele><time>2026-04-29T06:58:52Z</time></trkpt><trkpt lat="39.80034191131332" lon="9.444977990140552"><ele>751.5</ele><time>2026-04-29T06:58:53Z</time></trkpt><trkpt lat="39.800397767131514" lon="9.445035137291955"><ele>752.3333333333334</ele><time>2026-04-29T06:58:54Z</time></trkpt><trkpt lat="39.800451660071374" lon="9.44509743422385"><ele>753.1666666666667</ele><time>2026-04-29T06:58:55Z</time></trkpt><trkpt lat="39.80049583334429" lon="9.445159812911667"><ele>754.0</ele><time>2026-04-29T06:58:56Z</time></trkpt><trkpt lat="39.80054275113278" lon="9.445322647035692"><ele>754.0</ele><time>2026-04-29T06:58:58Z</time></trkpt><trkpt lat="39.80057532310067" lon="9.445434140316191"><ele>754.0</ele><time>2026-04-29T06:58:59Z</time></trkpt><trkpt lat="39.80061237405263" lon="9.445545370126023"><ele>754.0</ele><time>2026-04-29T06:59:00Z</time></trkpt><trkpt lat="39.800654832385575" lon="9.445645427465605"><ele>754.0</ele><time>2026-04-29T06:59:01Z</time></trkpt><trkpt lat="39.80069751289275" lon="9.445741864538842"><ele>754.0</ele><time>2026-04-29T06:59:02Z</time></trkpt><trkpt lat="39.800783633297414" lon="9.445834558914564"><ele>753.8333333333334</ele><time>2026-04-29T06:59:04Z</time></trkpt><trkpt lat="39.800846105883714" lon="9.445869506745918"><ele>753.6666666666667</ele><time>2026-04-29T06:59:05Z</time></trkpt><trkpt lat="39.800903861788306" lon="9.445909878619528"><ele>753.5</ele><time>2026-04-29T06:59:06Z</time></trkpt><trkpt lat="39.80095315077827" lon="9.445982885634905"><ele>753.3333333333334</ele><time>2026-04-29T06:59:07Z</time></trkpt><trkpt lat="39.80098512251722" lon="9.446063681318277"><ele>753.1666666666666</ele><time>2026-04-29T06:59:08Z</time></trkpt><trkpt lat="39.801021168517664" lon="9.446165435981776"><ele>753.0</ele><time>2026-04-29T06:59:09Z</time></trkpt><trkpt lat="39.80107017044013" lon="9.446261865264558"><ele>753.1666666666666</ele><time>2026-04-29T06:59:10Z</time></trkpt><trkpt lat="39.80112217945886" lon="9.446353750246665"><ele>753.3333333333334</ele><time>2026-04-29T06:59:11Z</time></trkpt><trkpt lat="39.801189111640454" lon="9.446425793065098"><ele>753.5</ele><time>2026-04-29T06:59:12Z</time></trkpt><trkpt lat="39.80126221831383" lon="9.446487515301731"><ele>753.6666666666667</ele><time>2026-04-29T06:59:13Z</time></trkpt><trkpt lat="39.80133765470166" lon="9.446539353342168"><ele>753.8333333333334</ele><time>2026-04-29T06:59:14Z</time></trkpt><trkpt lat="39.801415685563775" lon="9.446581767631345"><ele>754.0</ele><time>2026-04-29T06:59:15Z</time></trkpt><trkpt lat="39.801496961709795" lon="9.446613495774017"><ele>754.0</ele><time>2026-04-29T06:59:16Z</time></trkpt><trkpt lat="39.80156342004215" lon="9.44665283286081"><ele>754.0</ele><time>2026-04-29T06:59:17Z</time></trkpt><trkpt lat="39.80162759626952" lon="9.446709697537012"><ele>754.0</ele><time>2026-04-29T06:59:18Z</time></trkpt><trkpt lat="39.80168050952646" lon="9.446770014571662"><ele>754.0</ele><time>2026-04-29T06:59:19Z</time></trkpt><trkpt lat="39.80178555436212" lon="9.44687820085874"><ele>754.0</ele><time>2026-04-29T06:59:21Z</time></trkpt><trkpt lat="39.80183550515447" lon="9.446935837696145"><ele>754.0</ele><time>2026-04-29T06:59:22Z</time></trkpt><trkpt lat="39.80188186523396" lon="9.447033870905715"><ele>754.1666666666667</ele><time>2026-04-29T06:59:24Z</time></trkpt><trkpt lat="39.80191319077492" lon="9.447185814490139"><ele>754.3333333333334</ele><time>2026-04-29T06:59:26Z</time></trkpt><trkpt lat="39.8019351884369" lon="9.447280390592928"><ele>754.5</ele><time>2026-04-29T06:59:27Z</time></trkpt><trkpt lat="39.801954886074945" lon="9.447365549853409"><ele>754.6666666666666</ele><time>2026-04-29T06:59:28Z</time></trkpt><trkpt lat="39.80199134779821" lon="9.44744284821514"><ele>754.8333333333333</ele><time>2026-04-29T06:59:29Z</time></trkpt><trkpt lat="39.8020743547293" lon="9.447511282712822"><ele>755.0</ele><time>2026-04-29T06:59:31Z</time></trkpt><trkpt lat="39.802152116621095" lon="9.447504013354918"><ele>755.0</ele><time>2026-04-29T06:59:33Z</time></trkpt><trkpt lat="39.80221460124994" lon="9.447530237873318"><ele>755.0</ele><time>2026-04-29T06:59:34Z</time></trkpt><trkpt lat="39.802307362850506" lon="9.447597786667144"><ele>755.0</ele><time>2026-04-29T06:59:36Z</time></trkpt><trkpt lat="39.802342819915374" lon="9.447666268241697"><ele>755.0</ele><time>2026-04-29T06:59:38Z</time></trkpt><trkpt lat="39.80242332291025" lon="9.447762495757125"><ele>755.0</ele><time>2026-04-29T06:59:40Z</time></trkpt><trkpt lat="39.802509258849476" lon="9.447799100708785"><ele>755.0</ele><time>2026-04-29T06:59:42Z</time></trkpt><trkpt lat="39.80259651741687" lon="9.44777833254289"><ele>755.8</ele><time>2026-04-29T06:59:45Z</time></trkpt><trkpt lat="39.80267379604658" lon="9.447725208678598"><ele>756.6</ele><time>2026-04-29T06:59:47Z</time></trkpt><trkpt lat="39.8027570104087" lon="9.44770270786804"><ele>757.4000000000001</ele><time>2026-04-29T06:59:50Z</time></trkpt><trkpt lat="39.80283550872027" lon="9.44775088592617"><ele>758.2</ele><time>2026-04-29T06:59:52Z</time></trkpt><trkpt lat="39.80289017052821" lon="9.447817608712285"><ele>759.0</ele><time>2026-04-29T06:59:54Z</time></trkpt><trkpt lat="39.80300719821627" lon="9.447902449318201"><ele>759.0</ele><time>2026-04-29T06:59:56Z</time></trkpt><trkpt lat="39.80307625779646" lon="9.447935580874487"><ele>759.0</ele><time>2026-04-29T06:59:57Z</time></trkpt><trkpt lat="39.803181107320945" lon="9.448039004811664"><ele>759.0</ele><time>2026-04-29T06:59:59Z</time></trkpt><trkpt lat="39.803242019805026" lon="9.448094439490927"><ele>759.0</ele><time>2026-04-29T07:00:00Z</time></trkpt><trkpt lat="39.80330848162651" lon="9.44816984911854"><ele>759.0</ele><time>2026-04-29T07:00:01Z</time></trkpt><trkpt lat="39.803379177081055" lon="9.448225312248235"><ele>758.8333333333334</ele><time>2026-04-29T07:00:02Z</time></trkpt><trkpt lat="39.80344512207027" lon="9.44826828402667"><ele>758.6666666666666</ele><time>2026-04-29T07:00:03Z</time></trkpt><trkpt lat="39.80352052172213" lon="9.448322638675126"><ele>758.5</ele><time>2026-04-29T07:00:04Z</time></trkpt><trkpt lat="39.803583491135306" lon="9.448400650389923"><ele>758.3333333333333</ele><time>2026-04-29T07:00:06Z</time></trkpt><trkpt lat="39.803628335366234" lon="9.448502163954211"><ele>758.1666666666666</ele><time>2026-04-29T07:00:08Z</time></trkpt><trkpt lat="39.8036661074153" lon="9.448622516678373"><ele>758.0</ele><time>2026-04-29T07:00:10Z</time></trkpt><trkpt lat="39.80372455267839" lon="9.448735345143987"><ele>758.2</ele><time>2026-04-29T07:00:12Z</time></trkpt><trkpt lat="39.80374515140329" lon="9.448837860698651"><ele>758.4</ele><time>2026-04-29T07:00:14Z</time></trkpt><trkpt lat="39.80377780626789" lon="9.448974532605995"><ele>758.6</ele><time>2026-04-29T07:00:16Z</time></trkpt><trkpt lat="39.80374448546886" lon="9.449096564659216"><ele>758.8000000000001</ele><time>2026-04-29T07:00:18Z</time></trkpt><trkpt lat="39.80368735786287" lon="9.449189621493492"><ele>759.0</ele><time>2026-04-29T07:00:20Z</time></trkpt><trkpt lat="39.803643201553626" lon="9.449281394169047"><ele>759.0</ele><time>2026-04-29T07:00:20.999Z</time></trkpt><trkpt lat="39.803589640168575" lon="9.449425958410393"><ele>759.0</ele><time>2026-04-29T07:00:22.999Z</time></trkpt><trkpt lat="39.803579235677724" lon="9.449517581493915"><ele>759.0</ele><time>2026-04-29T07:00:23.999Z</time></trkpt><trkpt lat="39.80355624407703" lon="9.449613468990767"><ele>759.0</ele><time>2026-04-29T07:00:24.999Z</time></trkpt><trkpt lat="39.803530099011894" lon="9.449702201436992"><ele>759.0</ele><time>2026-04-29T07:00:25.999Z</time></trkpt><trkpt lat="39.80350340384543" lon="9.449778954250574"><ele>759.0</ele><time>2026-04-29T07:00:26.999Z</time></trkpt><trkpt lat="39.8034864611349" lon="9.449865146568866"><ele>759.4000000000001</ele><time>2026-04-29T07:00:27.999Z</time></trkpt><trkpt lat="39.80343739428187" lon="9.449960951984682"><ele>759.8</ele><time>2026-04-29T07:00:29.999Z</time></trkpt><trkpt lat="39.803345816567514" lon="9.450011804139855"><ele>760.2</ele><time>2026-04-29T07:00:31.999Z</time></trkpt><trkpt lat="39.80326780045266" lon="9.450036905566332"><ele>760.5999999999999</ele><time>2026-04-29T07:00:32.999Z</time></trkpt><trkpt lat="39.80318104262819" lon="9.450071043279392"><ele>761.0</ele><time>2026-04-29T07:00:33.999Z</time></trkpt><trkpt lat="39.80309308114252" lon="9.450107283628315"><ele>761.0</ele><time>2026-04-29T07:00:34.999Z</time></trkpt><trkpt lat="39.80301228000695" lon="9.450143440778442"><ele>761.0</ele><time>2026-04-29T07:00:35.999Z</time></trkpt><trkpt lat="39.802928956127204" lon="9.450181535658805"><ele>761.0</ele><time>2026-04-29T07:00:36.999Z</time></trkpt><trkpt lat="39.80284107880569" lon="9.450226708042024"><ele>761.0</ele><time>2026-04-29T07:00:37.999Z</time></trkpt><trkpt lat="39.80276567732224" lon="9.4502623699458"><ele>761.0</ele><time>2026-04-29T07:00:38.999Z</time></trkpt><trkpt lat="39.802696116466684" lon="9.450330415232145"><ele>761.0</ele><time>2026-04-29T07:00:40.999Z</time></trkpt><trkpt lat="39.802625734426016" lon="9.450470804673204"><ele>761.3333333333333</ele><time>2026-04-29T07:00:42.999Z</time></trkpt><trkpt lat="39.802595725856136" lon="9.450566451967193"><ele>761.6666666666666</ele><time>2026-04-29T07:00:43.999Z</time></trkpt><trkpt lat="39.80256777091194" lon="9.450667963252128"><ele>762.0</ele><time>2026-04-29T07:00:44.999Z</time></trkpt><trkpt lat="39.802561197228826" lon="9.450768578667425"><ele>762.3333333333334</ele><time>2026-04-29T07:00:45.999Z</time></trkpt><trkpt lat="39.80256150328322" lon="9.450874099492538"><ele>762.6666666666667</ele><time>2026-04-29T07:00:46.999Z</time></trkpt><trkpt lat="39.80256893099788" lon="9.450965994400732"><ele>763.0</ele><time>2026-04-29T07:00:47.999Z</time></trkpt><trkpt lat="39.80257388029343" lon="9.45105540842773"><ele>763.0</ele><time>2026-04-29T07:00:48.999Z</time></trkpt><trkpt lat="39.802574292581085" lon="9.451152084916766"><ele>763.0</ele><time>2026-04-29T07:00:49.999Z</time></trkpt><trkpt lat="39.80257251249479" lon="9.451265357140185"><ele>763.0</ele><time>2026-04-29T07:00:51Z</time></trkpt><trkpt lat="39.80258293458017" lon="9.451375376679191"><ele>763.0</ele><time>2026-04-29T07:00:52Z</time></trkpt><trkpt lat="39.8025983449608" lon="9.451513893730208"><ele>763.0</ele><time>2026-04-29T07:00:53Z</time></trkpt><trkpt lat="39.80262115708561" lon="9.451635886000163"><ele>763.1666666666667</ele><time>2026-04-29T07:00:54Z</time></trkpt><trkpt lat="39.80262325867017" lon="9.451769270199167"><ele>763.3333333333334</ele><time>2026-04-29T07:00:55Z</time></trkpt><trkpt lat="39.80263091022797" lon="9.451894277436892"><ele>763.5</ele><time>2026-04-29T07:00:56Z</time></trkpt><trkpt lat="39.802646482442135" lon="9.451998685000468"><ele>763.6666666666666</ele><time>2026-04-29T07:00:57Z</time></trkpt><trkpt lat="39.80265008711619" lon="9.45211373469543"><ele>763.8333333333333</ele><time>2026-04-29T07:00:58Z</time></trkpt><trkpt lat="39.802654238446195" lon="9.452213963034135"><ele>764.0</ele><time>2026-04-29T07:00:59Z</time></trkpt><trkpt lat="39.80267355789442" lon="9.452324321677393"><ele>764.8333333333333</ele><time>2026-04-29T07:01:00Z</time></trkpt><trkpt lat="39.80270960965317" lon="9.452435530291304"><ele>765.6666666666666</ele><time>2026-04-29T07:01:01Z</time></trkpt><trkpt lat="39.80273053853266" lon="9.452551774674697"><ele>766.5</ele><time>2026-04-29T07:01:02Z</time></trkpt><trkpt lat="39.80273086116906" lon="9.452657442720968"><ele>767.3333333333333</ele><time>2026-04-29T07:01:03Z</time></trkpt><trkpt lat="39.80272762855876" lon="9.452758265056735"><ele>768.1666666666666</ele><time>2026-04-29T07:01:04Z</time></trkpt><trkpt lat="39.80272082644278" lon="9.452850047080046"><ele>769.0</ele><time>2026-04-29T07:01:05Z</time></trkpt><trkpt lat="39.80272534645806" lon="9.452936907352473"><ele>769.1666666666666</ele><time>2026-04-29T07:01:06Z</time></trkpt><trkpt lat="39.802696761366256" lon="9.453088192009377"><ele>769.3333333333333</ele><time>2026-04-29T07:01:08Z</time></trkpt><trkpt lat="39.802659609973844" lon="9.453169853697627"><ele>769.5</ele><time>2026-04-29T07:01:09Z</time></trkpt><trkpt lat="39.80260969378621" lon="9.45324637511016"><ele>769.6666666666667</ele><time>2026-04-29T07:01:10Z</time></trkpt><trkpt lat="39.80256927093752" lon="9.453324603566436"><ele>769.8333333333334</ele><time>2026-04-29T07:01:11Z</time></trkpt><trkpt lat="39.80255649391284" lon="9.45344913676019"><ele>770.0</ele><time>2026-04-29T07:01:13Z</time></trkpt><trkpt lat="39.802600603241565" lon="9.453563377986107"><ele>770.0000000000001</ele><time>2026-04-29T07:01:15Z</time></trkpt><trkpt lat="39.802636006807674" lon="9.453642471465042"><ele>770.0</ele><time>2026-04-29T07:01:16Z</time></trkpt><trkpt lat="39.80268491514934" lon="9.45371973288991"><ele>770.0</ele><time>2026-04-29T07:01:17Z</time></trkpt><trkpt lat="39.80273116310241" lon="9.453783135896215"><ele>770.0</ele><time>2026-04-29T07:01:18Z</time></trkpt><trkpt lat="39.80277850227331" lon="9.453838650931834"><ele>770.0000000000001</ele><time>2026-04-29T07:01:19Z</time></trkpt><trkpt lat="39.80290067626375" lon="9.453863339591024"><ele>770.0</ele><time>2026-04-29T07:01:21Z</time></trkpt><trkpt lat="39.8029682041325" lon="9.453864739524688"><ele>771.6</ele><time>2026-04-29T07:01:22Z</time></trkpt><trkpt lat="39.80309935526378" lon="9.453864777903984"><ele>773.2</ele><time>2026-04-29T07:01:24Z</time></trkpt><trkpt lat="39.803226461578575" lon="9.453853764383947"><ele>774.8</ele><time>2026-04-29T07:01:26Z</time></trkpt><trkpt lat="39.80331331012216" lon="9.453867462855913"><ele>776.4</ele><time>2026-04-29T07:01:27Z</time></trkpt><trkpt lat="39.80339312647681" lon="9.45387782337479"><ele>778.0</ele><time>2026-04-29T07:01:28Z</time></trkpt><trkpt lat="39.80347960714432" lon="9.453872085049406"><ele>778.8</ele><time>2026-04-29T07:01:29Z</time></trkpt><trkpt lat="39.80356144658102" lon="9.45386774029121"><ele>779.5999999999999</ele><time>2026-04-29T07:01:30Z</time></trkpt><trkpt lat="39.80362781869144" lon="9.453854508880042"><ele>780.4000000000001</ele><time>2026-04-29T07:01:31Z</time></trkpt><trkpt lat="39.803757378967276" lon="9.453818386392362"><ele>781.2</ele><time>2026-04-29T07:01:33Z</time></trkpt><trkpt lat="39.80383937217139" lon="9.45379534949128"><ele>782.0</ele><time>2026-04-29T07:01:34Z</time></trkpt><trkpt lat="39.8039224146345" lon="9.453768948602617"><ele>782.0</ele><time>2026-04-29T07:01:35Z</time></trkpt><trkpt lat="39.80402863485421" lon="9.453734566588647"><ele>782.0</ele><time>2026-04-29T07:01:36Z</time></trkpt><trkpt lat="39.8041282452453" lon="9.453715194859495"><ele>782.0</ele><time>2026-04-29T07:01:37Z</time></trkpt><trkpt lat="39.804220369305355" lon="9.453690261194556"><ele>782.0</ele><time>2026-04-29T07:01:38Z</time></trkpt><trkpt lat="39.80429161484332" lon="9.453648529867902"><ele>782.0</ele><time>2026-04-29T07:01:39Z</time></trkpt><trkpt lat="39.804351663979844" lon="9.453595397192382"><ele>782.6666666666667</ele><time>2026-04-29T07:01:40Z</time></trkpt><trkpt lat="39.80443424310169" lon="9.45353298658138"><ele>783.3333333333334</ele><time>2026-04-29T07:01:41Z</time></trkpt><trkpt lat="39.804492626316694" lon="9.453470323171116"><ele>784.0</ele><time>2026-04-29T07:01:42Z</time></trkpt><trkpt lat="39.80455236801902" lon="9.453413560909874"><ele>784.6666666666667</ele><time>2026-04-29T07:01:43Z</time></trkpt><trkpt lat="39.80463597709497" lon="9.453350193472575"><ele>785.3333333333334</ele><time>2026-04-29T07:01:44Z</time></trkpt><trkpt lat="39.804728360012774" lon="9.453303048507813"><ele>786.0</ele><time>2026-04-29T07:01:45Z</time></trkpt><trkpt lat="39.80481397274925" lon="9.453269148289202"><ele>786.0</ele><time>2026-04-29T07:01:46Z</time></trkpt><trkpt lat="39.80489168820609" lon="9.453249408612647"><ele>786.0</ele><time>2026-04-29T07:01:47Z</time></trkpt><trkpt lat="39.804978365346855" lon="9.45323060779619"><ele>786.0</ele><time>2026-04-29T07:01:48Z</time></trkpt><trkpt lat="39.80506172493113" lon="9.45322699100422"><ele>786.0</ele><time>2026-04-29T07:01:49Z</time></trkpt><trkpt lat="39.80513586300149" lon="9.453199227105038"><ele>786.0</ele><time>2026-04-29T07:01:50Z</time></trkpt><trkpt lat="39.80519905695913" lon="9.45316245088639"><ele>786.0</ele><time>2026-04-29T07:01:51Z</time></trkpt><trkpt lat="39.805281644594785" lon="9.45311639205606"><ele>786.8</ele><time>2026-04-29T07:01:52Z</time></trkpt><trkpt lat="39.80536473397899" lon="9.453080532614937"><ele>787.5999999999999</ele><time>2026-04-29T07:01:53Z</time></trkpt><trkpt lat="39.80544664054116" lon="9.453040585941332"><ele>788.4</ele><time>2026-04-29T07:01:54Z</time></trkpt><trkpt lat="39.80556980638272" lon="9.453026654586973"><ele>789.2</ele><time>2026-04-29T07:01:56Z</time></trkpt><trkpt lat="39.80567175951211" lon="9.45302499739776"><ele>790.0</ele><time>2026-04-29T07:01:57Z</time></trkpt><trkpt lat="39.805769051541766" lon="9.453007189514869"><ele>790.0</ele><time>2026-04-29T07:01:58Z</time></trkpt><trkpt lat="39.805857348436646" lon="9.452977212453902"><ele>790.0</ele><time>2026-04-29T07:01:59Z</time></trkpt><trkpt lat="39.80594765770216" lon="9.452943556514466"><ele>790.0</ele><time>2026-04-29T07:02:00Z</time></trkpt><trkpt lat="39.80605388475867" lon="9.452924405076216"><ele>790.0</ele><time>2026-04-29T07:02:01Z</time></trkpt><trkpt lat="39.806149040841646" lon="9.452895407191848"><ele>790.0</ele><time>2026-04-29T07:02:02Z</time></trkpt><trkpt lat="39.80623198584952" lon="9.452876134371003"><ele>789.0</ele><time>2026-04-29T07:02:03Z</time></trkpt><trkpt lat="39.80630700996935" lon="9.452865770043221"><ele>788.0</ele><time>2026-04-29T07:02:04Z</time></trkpt><trkpt lat="39.8064087088083" lon="9.45285425693673"><ele>787.0</ele><time>2026-04-29T07:02:05Z</time></trkpt><trkpt lat="39.806504811413326" lon="9.452835450660004"><ele>786.0</ele><time>2026-04-29T07:02:06Z</time></trkpt><trkpt lat="39.80659972970555" lon="9.45278784517559"><ele>785.0</ele><time>2026-04-29T07:02:07Z</time></trkpt><trkpt lat="39.80669683998191" lon="9.452753151095662"><ele>785.0000000000001</ele><time>2026-04-29T07:02:08Z</time></trkpt><trkpt lat="39.80677214282504" lon="9.452705565363145"><ele>785.0</ele><time>2026-04-29T07:02:09Z</time></trkpt><trkpt lat="39.80685970341204" lon="9.45266433489958"><ele>785.0</ele><time>2026-04-29T07:02:10Z</time></trkpt><trkpt lat="39.80692573735556" lon="9.4526133182559"><ele>785.0</ele><time>2026-04-29T07:02:11Z</time></trkpt><trkpt lat="39.8070028138135" lon="9.452565598897626"><ele>785.0000000000001</ele><time>2026-04-29T07:02:12Z</time></trkpt><trkpt lat="39.80708309742542" lon="9.452526430018182"><ele>785.0</ele><time>2026-04-29T07:02:13Z</time></trkpt><trkpt lat="39.80716415941833" lon="9.452504323267517"><ele>784.8333333333334</ele><time>2026-04-29T07:02:14Z</time></trkpt><trkpt lat="39.80726190628742" lon="9.452495499494557"><ele>784.6666666666667</ele><time>2026-04-29T07:02:14.999Z</time></trkpt><trkpt lat="39.80733990876115" lon="9.452488480874086"><ele>784.5</ele><time>2026-04-29T07:02:15.999Z</time></trkpt><trkpt lat="39.80741951140043" lon="9.452469544723037"><ele>784.3333333333333</ele><time>2026-04-29T07:02:17Z</time></trkpt><trkpt lat="39.80750509467985" lon="9.452461265808854"><ele>784.1666666666666</ele><time>2026-04-29T07:02:18Z</time></trkpt><trkpt lat="39.807578540904096" lon="9.452426058831536"><ele>784.0</ele><time>2026-04-29T07:02:19Z</time></trkpt><trkpt lat="39.80765529156799" lon="9.452402587289562"><ele>783.6</ele><time>2026-04-29T07:02:20Z</time></trkpt><trkpt lat="39.807763364599964" lon="9.452388069527737"><ele>783.2</ele><time>2026-04-29T07:02:20.999Z</time></trkpt><trkpt lat="39.80785760403724" lon="9.45238475168213"><ele>782.8000000000001</ele><time>2026-04-29T07:02:21.999Z</time></trkpt><trkpt lat="39.807944569778314" lon="9.452368084304211"><ele>782.4000000000001</ele><time>2026-04-29T07:02:23Z</time></trkpt><trkpt lat="39.80803032347071" lon="9.452341937836321"><ele>782.0</ele><time>2026-04-29T07:02:23.999Z</time></trkpt><trkpt lat="39.808098407810505" lon="9.452317477012697"><ele>782.0</ele><time>2026-04-29T07:02:24.999Z</time></trkpt><trkpt lat="39.80817684368999" lon="9.452286791903717"><ele>782.0</ele><time>2026-04-29T07:02:25.999Z</time></trkpt><trkpt lat="39.80828048090056" lon="9.452251311323193"><ele>782.0</ele><time>2026-04-29T07:02:26.999Z</time></trkpt><trkpt lat="39.80837772413216" lon="9.452241435581415"><ele>782.0</ele><time>2026-04-29T07:02:27.999Z</time></trkpt><trkpt lat="39.8084742382905" lon="9.452245494884497"><ele>782.0</ele><time>2026-04-29T07:02:28.999Z</time></trkpt><trkpt lat="39.808573542366986" lon="9.452233438173701"><ele>782.6</ele><time>2026-04-29T07:02:29.999Z</time></trkpt><trkpt lat="39.80867380728898" lon="9.452236731330693"><ele>783.2</ele><time>2026-04-29T07:02:30.999Z</time></trkpt><trkpt lat="39.80877536442161" lon="9.45222928868701"><ele>783.8</ele><time>2026-04-29T07:02:31.999Z</time></trkpt><trkpt lat="39.80887356042218" lon="9.452233130797023"><ele>784.4</ele><time>2026-04-29T07:02:32.999Z</time></trkpt><trkpt lat="39.808985647704894" lon="9.452241725336146"><ele>785.0</ele><time>2026-04-29T07:02:33.999Z</time></trkpt><trkpt lat="39.80910261977352" lon="9.452228843104857"><ele>785.0</ele><time>2026-04-29T07:02:34.999Z</time></trkpt><trkpt lat="39.80922611385313" lon="9.452213969184573"><ele>785.0</ele><time>2026-04-29T07:02:35.999Z</time></trkpt><trkpt lat="39.809339637044936" lon="9.452188834759479"><ele>785.0</ele><time>2026-04-29T07:02:36.999Z</time></trkpt><trkpt lat="39.809472031851925" lon="9.45218010712694"><ele>785.0</ele><time>2026-04-29T07:02:37.999Z</time></trkpt><trkpt lat="39.80962975621323" lon="9.452187497079121"><ele>785.5</ele><time>2026-04-29T07:02:38.999Z</time></trkpt><trkpt lat="39.809760802039484" lon="9.452187120980861"><ele>786.0</ele><time>2026-04-29T07:02:39.999Z</time></trkpt><trkpt lat="39.80990829185887" lon="9.452181283209189"><ele>786.5</ele><time>2026-04-29T07:02:40.999Z</time></trkpt><trkpt lat="39.81006302265772" lon="9.452169467694503"><ele>787.0</ele><time>2026-04-29T07:02:41.999Z</time></trkpt><trkpt lat="39.81021209810647" lon="9.452166060189697"><ele>787.25</ele><time>2026-04-29T07:02:42.999Z</time></trkpt><trkpt lat="39.8103413274235" lon="9.452162861305396"><ele>787.5</ele><time>2026-04-29T07:02:43.999Z</time></trkpt><trkpt lat="39.810463845946444" lon="9.452146767512259"><ele>787.75</ele><time>2026-04-29T07:02:44.999Z</time></trkpt><trkpt lat="39.81057716757437" lon="9.4521427501497"><ele>788.0</ele><time>2026-04-29T07:02:45.999Z</time></trkpt><trkpt lat="39.81066756610988" lon="9.452126027979315"><ele>787.8333333333334</ele><time>2026-04-29T07:02:46.999Z</time></trkpt><trkpt lat="39.810745121371966" lon="9.452111223561632"><ele>787.6666666666667</ele><time>2026-04-29T07:02:47.999Z</time></trkpt><trkpt lat="39.81084505121772" lon="9.452090725430939"><ele>787.5</ele><time>2026-04-29T07:02:48.999Z</time></trkpt><trkpt lat="39.81092614213712" lon="9.452057736323107"><ele>787.3333333333333</ele><time>2026-04-29T07:02:49.999Z</time></trkpt><trkpt lat="39.81101224191928" lon="9.452056162981503"><ele>787.1666666666666</ele><time>2026-04-29T07:02:50.999Z</time></trkpt><trkpt lat="39.81111041053001" lon="9.452064509373072"><ele>787.0</ele><time>2026-04-29T07:02:51.999Z</time></trkpt><trkpt lat="39.81121136737778" lon="9.452086671284077"><ele>787.6</ele><time>2026-04-29T07:02:52.999Z</time></trkpt><trkpt lat="39.81131792981367" lon="9.452108588429228"><ele>788.2</ele><time>2026-04-29T07:02:53.999Z</time></trkpt><trkpt lat="39.811424125955774" lon="9.452137143981886"><ele>788.8</ele><time>2026-04-29T07:02:54.999Z</time></trkpt><trkpt lat="39.811530337630245" lon="9.452158784280327"><ele>789.4</ele><time>2026-04-29T07:02:55.999Z</time></trkpt><trkpt lat="39.81164317633585" lon="9.452170585012325"><ele>790.0</ele><time>2026-04-29T07:02:56.999Z</time></trkpt><trkpt lat="39.81174939233434" lon="9.452181814404602"><ele>790.4</ele><time>2026-04-29T07:02:57.999Z</time></trkpt><trkpt lat="39.811851675018865" lon="9.452189446293486"><ele>790.8</ele><time>2026-04-29T07:02:58.999Z</time></trkpt><trkpt lat="39.811945238228425" lon="9.452189985243573"><ele>791.2</ele><time>2026-04-29T07:02:59.999Z</time></trkpt><trkpt lat="39.81201244481802" lon="9.452192236855998"><ele>791.6</ele><time>2026-04-29T07:03:00.999Z</time></trkpt><trkpt lat="39.81210773279778" lon="9.45221871835523"><ele>792.0</ele><time>2026-04-29T07:03:02.999Z</time></trkpt><trkpt lat="39.81219892883815" lon="9.45230111206413"><ele>792.0</ele><time>2026-04-29T07:03:04.999Z</time></trkpt><trkpt lat="39.812259865570944" lon="9.452362474238043"><ele>792.0</ele><time>2026-04-29T07:03:05.999Z</time></trkpt><trkpt lat="39.81232837609897" lon="9.452418265345148"><ele>792.0</ele><time>2026-04-29T07:03:06.999Z</time></trkpt><trkpt lat="39.81240723591421" lon="9.452485562088864"><ele>792.0</ele><time>2026-04-29T07:03:07.999Z</time></trkpt><trkpt lat="39.81250286598861" lon="9.452567662856811"><ele>792.0</ele><time>2026-04-29T07:03:08.999Z</time></trkpt><trkpt lat="39.8126089079261" lon="9.452664033227402"><ele>792.2</ele><time>2026-04-29T07:03:09.999Z</time></trkpt><trkpt lat="39.8127239906002" lon="9.452754804373702"><ele>792.4000000000001</ele><time>2026-04-29T07:03:10.999Z</time></trkpt><trkpt lat="39.8128196193737" lon="9.452825502854608"><ele>792.5999999999999</ele><time>2026-04-29T07:03:11.999Z</time></trkpt><trkpt lat="39.81291001595364" lon="9.452874520982276"><ele>792.8</ele><time>2026-04-29T07:03:12.999Z</time></trkpt><trkpt lat="39.81298599150804" lon="9.452884125799008"><ele>793.0</ele><time>2026-04-29T07:03:13.999Z</time></trkpt><trkpt lat="39.81304149017004" lon="9.45283866193675"><ele>793.0</ele><time>2026-04-29T07:03:15.999Z</time></trkpt><trkpt lat="39.81306271149559" lon="9.45273153522579"><ele>793.0</ele><time>2026-04-29T07:03:17.999Z</time></trkpt><trkpt lat="39.81308889887683" lon="9.45301012682033"><ele>793.0</ele><time>2026-04-29T07:03:19.999Z</time></trkpt><trkpt lat="39.813139273745634" lon="9.452954373798057"><ele>793.0</ele><time>2026-04-29T07:04:07Z</time></trkpt><trkpt lat="39.81324534434102" lon="9.45290377687773"><ele>793.0</ele><time>2026-04-29T07:04:09Z</time></trkpt><trkpt lat="39.8133565564835" lon="9.452902448555102"><ele>793.0</ele><time>2026-04-29T07:04:11Z</time></trkpt><trkpt lat="39.813475998597696" lon="9.452980622984864"><ele>793.0</ele><time>2026-04-29T07:04:13Z</time></trkpt><trkpt lat="39.81353039259352" lon="9.453041182226706"><ele>793.0</ele><time>2026-04-29T07:04:14Z</time></trkpt><trkpt lat="39.81358541334381" lon="9.453102764079306"><ele>793.0</ele><time>2026-04-29T07:04:15Z</time></trkpt><trkpt lat="39.813648085260354" lon="9.453162016084049"><ele>793.8</ele><time>2026-04-29T07:04:16Z</time></trkpt><trkpt lat="39.813700517589126" lon="9.45323662403929"><ele>794.5999999999999</ele><time>2026-04-29T07:04:17Z</time></trkpt><trkpt lat="39.81377816647542" lon="9.453347489275602"><ele>795.4000000000001</ele><time>2026-04-29T07:04:19Z</time></trkpt><trkpt lat="39.813896373469845" lon="9.453427804323798"><ele>796.2</ele><time>2026-04-29T07:04:21Z</time></trkpt><trkpt lat="39.81397845730553" lon="9.453484840752191"><ele>797.0</ele><time>2026-04-29T07:04:22Z</time></trkpt><trkpt lat="39.81405017042886" lon="9.453554241347337"><ele>797.0</ele><time>2026-04-29T07:04:23Z</time></trkpt><trkpt lat="39.81411878822956" lon="9.453658994031363"><ele>797.0</ele><time>2026-04-29T07:04:23.999Z</time></trkpt><trkpt lat="39.814200496245654" lon="9.453743275343015"><ele>797.0</ele><time>2026-04-29T07:04:24.999Z</time></trkpt><trkpt lat="39.81428422131342" lon="9.453826903407569"><ele>797.0</ele><time>2026-04-29T07:04:25.999Z</time></trkpt><trkpt lat="39.81435707664927" lon="9.453907763473707"><ele>797.0</ele><time>2026-04-29T07:04:26.999Z</time></trkpt><trkpt lat="39.814423040246695" lon="9.45398710057367"><ele>797.6666666666667</ele><time>2026-04-29T07:04:27.999Z</time></trkpt><trkpt lat="39.81447486249213" lon="9.454063900672491"><ele>798.3333333333334</ele><time>2026-04-29T07:04:28.999Z</time></trkpt><trkpt lat="39.81452686967998" lon="9.454159882489803"><ele>799.0</ele><time>2026-04-29T07:04:30Z</time></trkpt><trkpt lat="39.81456918780839" lon="9.454236998701322"><ele>799.6666666666667</ele><time>2026-04-29T07:04:31Z</time></trkpt><trkpt lat="39.81461776960958" lon="9.454335595507414"><ele>800.3333333333334</ele><time>2026-04-29T07:04:31.999Z</time></trkpt><trkpt lat="39.81467185287378" lon="9.454427692954527"><ele>801.0</ele><time>2026-04-29T07:04:32.999Z</time></trkpt><trkpt lat="39.81470673594145" lon="9.454502610229563"><ele>801.0</ele><time>2026-04-29T07:04:33.999Z</time></trkpt><trkpt lat="39.814747702471095" lon="9.45461517395698"><ele>801.0</ele><time>2026-04-29T07:04:35.999Z</time></trkpt><trkpt lat="39.81473615825607" lon="9.454701546824987"><ele>801.0</ele><time>2026-04-29T07:04:36.999Z</time></trkpt><trkpt lat="39.814732523672276" lon="9.4548066129683"><ele>801.0</ele><time>2026-04-29T07:04:37.999Z</time></trkpt><trkpt lat="39.8147245258384" lon="9.45491581662361"><ele>801.0</ele><time>2026-04-29T07:04:38.999Z</time></trkpt><trkpt lat="39.81471135751712" lon="9.455033389493792"><ele>801.0</ele><time>2026-04-29T07:04:39.999Z</time></trkpt><trkpt lat="39.81469287157392" lon="9.455145997571247"><ele>801.5999999999999</ele><time>2026-04-29T07:04:40.999Z</time></trkpt><trkpt lat="39.81468029491085" lon="9.455274574870964"><ele>802.2</ele><time>2026-04-29T07:04:41.999Z</time></trkpt><trkpt lat="39.814673378283466" lon="9.455402451287085"><ele>802.8</ele><time>2026-04-29T07:04:42.999Z</time></trkpt><trkpt lat="39.81466910607389" lon="9.455492652304843"><ele>803.4000000000001</ele><time>2026-04-29T07:04:43.999Z</time></trkpt><trkpt lat="39.81464697321685" lon="9.455642854439246"><ele>804.0</ele><time>2026-04-29T07:04:45.999Z</time></trkpt><trkpt lat="39.81467397955663" lon="9.455732860492976"><ele>804.1428571428571</ele><time>2026-04-29T07:04:47.999Z</time></trkpt><trkpt lat="39.81475084921981" lon="9.455764034733148"><ele>804.2857142857143</ele><time>2026-04-29T07:04:50.999Z</time></trkpt><trkpt lat="39.8148275293379" lon="9.455793504963498"><ele>804.4285714285714</ele><time>2026-04-29T07:04:52.999Z</time></trkpt><trkpt lat="39.814878680656264" lon="9.45585346174077"><ele>804.5714285714286</ele><time>2026-04-29T07:04:54.999Z</time></trkpt><trkpt lat="39.81494762856639" lon="9.455908530298172"><ele>804.7142857142858</ele><time>2026-04-29T07:04:56.999Z</time></trkpt><trkpt lat="39.81501344046098" lon="9.455930274308683"><ele>804.8571428571429</ele><time>2026-04-29T07:05:01.999Z</time></trkpt><trkpt lat="39.815080532682295" lon="9.455938413469033"><ele>805.0</ele><time>2026-04-29T07:05:10.999Z</time></trkpt><trkpt lat="39.81516179137975" lon="9.455957195056747"><ele>804.1666666666666</ele><time>2026-04-29T07:07:22Z</time></trkpt><trkpt lat="39.8152177825626" lon="9.455915178154303"><ele>803.3333333333333</ele><time>2026-04-29T07:07:39Z</time></trkpt><trkpt lat="39.815286489356126" lon="9.455907517674513"><ele>802.5</ele><time>2026-04-29T07:07:43Z</time></trkpt><trkpt lat="39.81540313680418" lon="9.455889605974429"><ele>801.6666666666667</ele><time>2026-04-29T07:08:04Z</time></trkpt><trkpt lat="39.815470704421216" lon="9.455861844756491"><ele>800.8333333333334</ele><time>2026-04-29T07:08:17Z</time></trkpt><trkpt lat="39.81552971998257" lon="9.455828907807254"><ele>800.0</ele><time>2026-04-29T07:08:22Z</time></trkpt><trkpt lat="39.81555810473904" lon="9.455704434694002"><ele>800.0000000000001</ele><time>2026-04-29T07:10:18Z</time></trkpt><trkpt lat="39.81558847554874" lon="9.455779041305872"><ele>800.0</ele><time>2026-04-29T07:15:21.999Z</time></trkpt><trkpt lat="39.81550345754943" lon="9.455826190730116"><ele>800.0</ele><time>2026-04-29T07:15:35.999Z</time></trkpt><trkpt lat="39.81544449936419" lon="9.455863165773566"><ele>800.0</ele><time>2026-04-29T07:15:45.999Z</time></trkpt><trkpt lat="39.815312473264036" lon="9.45590781820619"><ele>800.0000000000001</ele><time>2026-04-29T07:16:04.999Z</time></trkpt><trkpt lat="39.815249788857706" lon="9.455921846673194"><ele>800.0</ele><time>2026-04-29T07:16:09.999Z</time></trkpt><trkpt lat="39.81518085146638" lon="9.455949837939947"><ele>800.7142857142858</ele><time>2026-04-29T07:16:21.999Z</time></trkpt><trkpt lat="39.81511574060888" lon="9.45596996410319"><ele>801.4285714285714</ele><time>2026-04-29T07:17:00.999Z</time></trkpt><trkpt lat="39.81503942807152" lon="9.455986227354366"><ele>802.1428571428571</ele><time>2026-04-29T07:18:03.999Z</time></trkpt><trkpt lat="39.81497206880333" lon="9.455930257431042"><ele>802.8571428571429</ele><time>2026-04-29T07:27:01.998Z</time></trkpt><trkpt lat="39.81491421901675" lon="9.455883119892858"><ele>803.5714285714286</ele><time>2026-04-29T07:27:05.998Z</time></trkpt><trkpt lat="39.814840949560185" lon="9.455877779311686"><ele>804.2857142857143</ele><time>2026-04-29T07:27:08.998Z</time></trkpt><trkpt lat="39.81477227294324" lon="9.455864578113829"><ele>805.0</ele><time>2026-04-29T07:27:11.998Z</time></trkpt><trkpt lat="39.81472539235425" lon="9.455919591887161"><ele>804.9999999999999</ele><time>2026-04-29T07:27:15.998Z</time></trkpt><trkpt lat="39.81468323162544" lon="9.455992457469003"><ele>805.0</ele><time>2026-04-29T07:27:26.998Z</time></trkpt><trkpt lat="39.81471274653531" lon="9.45609258704711"><ele>805.0</ele><time>2026-04-29T07:27:28.999Z</time></trkpt><trkpt lat="39.8147413482847" lon="9.45619134084297"><ele>805.0</ele><time>2026-04-29T07:27:30.998Z</time></trkpt><trkpt lat="39.81476893786493" lon="9.456280915930732"><ele>804.9999999999999</ele><time>2026-04-29T07:27:32.998Z</time></trkpt><trkpt lat="39.814757184893594" lon="9.456402890609274"><ele>805.0</ele><time>2026-04-29T07:27:34.999Z</time></trkpt><trkpt lat="39.81478441371367" lon="9.456542381481981"><ele>805.25</ele><time>2026-04-29T07:27:36.999Z</time></trkpt><trkpt lat="39.814839588103624" lon="9.456669753850884"><ele>805.5</ele><time>2026-04-29T07:27:38.999Z</time></trkpt><trkpt lat="39.8148586679899" lon="9.456791220076711"><ele>805.75</ele><time>2026-04-29T07:27:40.999Z</time></trkpt><trkpt lat="39.814883216773154" lon="9.456957854660882"><ele>806.0</ele><time>2026-04-29T07:27:42.999Z</time></trkpt><trkpt lat="39.81490054321825" lon="9.457115178184528"><ele>806.5000000000001</ele><time>2026-04-29T07:27:44.999Z</time></trkpt><trkpt lat="39.814906041721855" lon="9.457217107842636"><ele>807.0</ele><time>2026-04-29T07:27:45.999Z</time></trkpt><trkpt lat="39.814906642554675" lon="9.457306069378433"><ele>807.5</ele><time>2026-04-29T07:27:46.999Z</time></trkpt><trkpt lat="39.81491450279008" lon="9.45739424622265"><ele>808.0</ele><time>2026-04-29T07:27:47.999Z</time></trkpt><trkpt lat="39.814897394025124" lon="9.457523443070986"><ele>808.5000000000001</ele><time>2026-04-29T07:27:49.999Z</time></trkpt><trkpt lat="39.81486119609666" lon="9.457647139996734"><ele>809.0</ele><time>2026-04-29T07:27:51.999Z</time></trkpt><trkpt lat="39.814817046797316" lon="9.457776859746607"><ele>809.0</ele><time>2026-04-29T07:27:53.999Z</time></trkpt><trkpt lat="39.81481528310146" lon="9.457931034431796"><ele>809.0</ele><time>2026-04-29T07:27:55.999Z</time></trkpt><trkpt lat="39.8148174569821" lon="9.458042059912088"><ele>809.0</ele><time>2026-04-29T07:27:56.999Z</time></trkpt><trkpt lat="39.814832727756844" lon="9.458142960923118"><ele>809.0</ele><time>2026-04-29T07:27:57.999Z</time></trkpt><trkpt lat="39.8148613658887" lon="9.458279275851261"><ele>809.0</ele><time>2026-04-29T07:27:59.999Z</time></trkpt><trkpt lat="39.81487181937559" lon="9.458382898030166"><ele>809.6666666666667</ele><time>2026-04-29T07:28:00.999Z</time></trkpt><trkpt lat="39.81489234009572" lon="9.458469298327008"><ele>810.3333333333334</ele><time>2026-04-29T07:28:01.999Z</time></trkpt><trkpt lat="39.81491023193686" lon="9.45861002016741"><ele>811.0</ele><time>2026-04-29T07:28:03.999Z</time></trkpt><trkpt lat="39.81495058908058" lon="9.458694407223343"><ele>811.6666666666667</ele><time>2026-04-29T07:28:05.999Z</time></trkpt><trkpt lat="39.81498362742648" lon="9.458777923335143"><ele>812.3333333333334</ele><time>2026-04-29T07:28:10.999Z</time></trkpt><trkpt lat="39.81503368501998" lon="9.458832784436835"><ele>813.0</ele><time>2026-04-29T07:28:13.999Z</time></trkpt><trkpt lat="39.81510558823991" lon="9.458851377708447"><ele>813.8571428571429</ele><time>2026-04-29T07:28:16.999Z</time></trkpt><trkpt lat="39.81514493683938" lon="9.458785757416976"><ele>814.7142857142857</ele><time>2026-04-29T07:28:22.999Z</time></trkpt><trkpt lat="39.8152110287886" lon="9.458774622495435"><ele>815.5714285714286</ele><time>2026-04-29T07:28:34.999Z</time></trkpt><trkpt lat="39.81526091330595" lon="9.458835685919153"><ele>816.4285714285714</ele><time>2026-04-29T07:28:54.999Z</time></trkpt><trkpt lat="39.81525668280017" lon="9.458747125634272"><ele>817.2857142857142</ele><time>2026-04-29T07:29:40.998Z</time></trkpt><trkpt lat="39.815235596628206" lon="9.458654583171928"><ele>818.1428571428571</ele><time>2026-04-29T07:29:53.998Z</time></trkpt><trkpt lat="39.81526992484158" lon="9.458550329619369"><ele>819.0</ele><time>2026-04-29T07:29:58.998Z</time></trkpt><trkpt lat="39.8153381727561" lon="9.458490390224501"><ele>815.8000000000001</ele><time>2026-04-29T07:30:01.998Z</time></trkpt><trkpt lat="39.81539671137734" lon="9.458454602126327"><ele>812.6</ele><time>2026-04-29T07:30:05.998Z</time></trkpt><trkpt lat="39.815459312595735" lon="9.458352251980617"><ele>809.4</ele><time>2026-04-29T07:30:08.998Z</time></trkpt><trkpt lat="39.815536788233096" lon="9.458248668112017"><ele>806.2</ele><time>2026-04-29T07:30:10.998Z</time></trkpt><trkpt lat="39.815623748357076" lon="9.45818576279649"><ele>803.0</ele><time>2026-04-29T07:30:12.998Z</time></trkpt><trkpt lat="39.815693755758616" lon="9.458091405871318"><ele>803.0</ele><time>2026-04-29T07:30:14.998Z</time></trkpt><trkpt lat="39.81574697692358" lon="9.458016409926252"><ele>803.0</ele><time>2026-04-29T07:30:15.998Z</time></trkpt><trkpt lat="39.81581514840871" lon="9.457949775272551"><ele>803.0</ele><time>2026-04-29T07:30:17.998Z</time></trkpt><trkpt lat="39.81591846206165" lon="9.457845139249294"><ele>803.0</ele><time>2026-04-29T07:30:19.998Z</time></trkpt><trkpt lat="39.815971686586515" lon="9.457784927728618"><ele>803.0</ele><time>2026-04-29T07:30:20.998Z</time></trkpt><trkpt lat="39.81605966955043" lon="9.457656486577608"><ele>803.1666666666667</ele><time>2026-04-29T07:30:22.998Z</time></trkpt><trkpt lat="39.816114505343954" lon="9.457577522552787"><ele>803.3333333333334</ele><time>2026-04-29T07:30:23.998Z</time></trkpt><trkpt lat="39.81617728066243" lon="9.457505215155342"><ele>803.5</ele><time>2026-04-29T07:30:24.998Z</time></trkpt><trkpt lat="39.81623191118603" lon="9.45744036562035"><ele>803.6666666666667</ele><time>2026-04-29T07:30:25.998Z</time></trkpt><trkpt lat="39.81631410791327" lon="9.457384069495607"><ele>803.8333333333334</ele><time>2026-04-29T07:30:26.998Z</time></trkpt><trkpt lat="39.816378103939535" lon="9.457334952260066"><ele>804.0</ele><time>2026-04-29T07:30:27.998Z</time></trkpt><trkpt lat="39.8164445189636" lon="9.45727891825121"><ele>804.0</ele><time>2026-04-29T07:30:28.998Z</time></trkpt><trkpt lat="39.81648873193815" lon="9.457208150402158"><ele>804.0</ele><time>2026-04-29T07:30:29.998Z</time></trkpt><trkpt lat="39.81652808828318" lon="9.45712580473685"><ele>804.0</ele><time>2026-04-29T07:30:30.998Z</time></trkpt><trkpt lat="39.816559676321724" lon="9.45705177551342"><ele>804.0</ele><time>2026-04-29T07:30:31.998Z</time></trkpt><trkpt lat="39.81664279134511" lon="9.456950455979497"><ele>804.0</ele><time>2026-04-29T07:30:33.998Z</time></trkpt><trkpt lat="39.816712183319005" lon="9.45690032871462"><ele>804.0</ele><time>2026-04-29T07:30:35.998Z</time></trkpt><trkpt lat="39.81681302969908" lon="9.45687330880289"><ele>805.6</ele><time>2026-04-29T07:30:37.998Z</time></trkpt><trkpt lat="39.81687958726144" lon="9.45683110768253"><ele>807.2</ele><time>2026-04-29T07:30:39.998Z</time></trkpt><trkpt lat="39.81693651939432" lon="9.456743613618181"><ele>808.8000000000001</ele><time>2026-04-29T07:30:41.998Z</time></trkpt><trkpt lat="39.81697722895187" lon="9.456611435767892"><ele>810.4000000000001</ele><time>2026-04-29T07:30:43.998Z</time></trkpt><trkpt lat="39.81701617580298" lon="9.456463061896319"><ele>812.0</ele><time>2026-04-29T07:30:44.998Z</time></trkpt><trkpt lat="39.81706186974136" lon="9.456335705263738"><ele>811.2</ele><time>2026-04-29T07:30:45.998Z</time></trkpt><trkpt lat="39.81708652895768" lon="9.456238060748738"><ele>810.4000000000001</ele><time>2026-04-29T07:30:46.998Z</time></trkpt><trkpt lat="39.81712780494971" lon="9.456121518887976"><ele>809.5999999999999</ele><time>2026-04-29T07:30:47.998Z</time></trkpt><trkpt lat="39.81717567779228" lon="9.456007862253003"><ele>808.8</ele><time>2026-04-29T07:30:48.998Z</time></trkpt><trkpt lat="39.8172382402214" lon="9.455911987434812"><ele>808.0</ele><time>2026-04-29T07:30:49.998Z</time></trkpt><trkpt lat="39.81728704904611" lon="9.455814038948791"><ele>808.0</ele><time>2026-04-29T07:30:50.998Z</time></trkpt><trkpt lat="39.817340123608155" lon="9.455709247188834"><ele>808.0</ele><time>2026-04-29T07:30:51.998Z</time></trkpt><trkpt lat="39.81738844049423" lon="9.455592708447789"><ele>808.0</ele><time>2026-04-29T07:30:52.998Z</time></trkpt><trkpt lat="39.817439655322474" lon="9.45549493825106"><ele>808.0</ele><time>2026-04-29T07:30:53.998Z</time></trkpt><trkpt lat="39.817481557191584" lon="9.455385177659734"><ele>808.0</ele><time>2026-04-29T07:30:54.998Z</time></trkpt><trkpt lat="39.81751876707318" lon="9.455279706416368"><ele>807.0</ele><time>2026-04-29T07:30:55.998Z</time></trkpt><trkpt lat="39.81753961492652" lon="9.455174806753806"><ele>806.0</ele><time>2026-04-29T07:30:56.998Z</time></trkpt><trkpt lat="39.817550879297194" lon="9.455049796454805"><ele>805.0</ele><time>2026-04-29T07:30:57.998Z</time></trkpt><trkpt lat="39.81755457259952" lon="9.454925970903247"><ele>804.0</ele><time>2026-04-29T07:30:58.998Z</time></trkpt><trkpt lat="39.817559090173376" lon="9.454788424128644"><ele>803.0</ele><time>2026-04-29T07:30:59.998Z</time></trkpt><trkpt lat="39.817555543881525" lon="9.454639285640122"><ele>803.0</ele><time>2026-04-29T07:31:00.998Z</time></trkpt><trkpt lat="39.8175622055862" lon="9.454514011432599"><ele>803.0</ele><time>2026-04-29T07:31:01.998Z</time></trkpt><trkpt lat="39.817568268563846" lon="9.454367679902514"><ele>803.0</ele><time>2026-04-29T07:31:02.998Z</time></trkpt><trkpt lat="39.817558695665284" lon="9.454216923790012"><ele>803.0</ele><time>2026-04-29T07:31:03.998Z</time></trkpt><trkpt lat="39.81755128992564" lon="9.454072085615845"><ele>803.0</ele><time>2026-04-29T07:31:04.998Z</time></trkpt><trkpt lat="39.817554766841084" lon="9.453933590818183"><ele>803.2</ele><time>2026-04-29T07:31:05.998Z</time></trkpt><trkpt lat="39.81756038413453" lon="9.45377713772159"><ele>803.4</ele><time>2026-04-29T07:31:06.998Z</time></trkpt><trkpt lat="39.817560000764686" lon="9.453628890806408"><ele>803.6</ele><time>2026-04-29T07:31:07.998Z</time></trkpt><trkpt lat="39.81756000192514" lon="9.453487321685447"><ele>803.8000000000001</ele><time>2026-04-29T07:31:08.998Z</time></trkpt><trkpt lat="39.817563875558825" lon="9.453354164516703"><ele>804.0</ele><time>2026-04-29T07:31:09.998Z</time></trkpt><trkpt lat="39.81756073815155" lon="9.453220604034131"><ele>804.0</ele><time>2026-04-29T07:31:10.998Z</time></trkpt><trkpt lat="39.817553658009494" lon="9.453095893295043"><ele>804.0</ele><time>2026-04-29T07:31:11.998Z</time></trkpt><trkpt lat="39.81753293510982" lon="9.4529606580506"><ele>804.0</ele><time>2026-04-29T07:31:12.998Z</time></trkpt><trkpt lat="39.81751431481757" lon="9.452839961072959"><ele>804.0</ele><time>2026-04-29T07:31:13.998Z</time></trkpt><trkpt lat="39.81750162233858" lon="9.452740634370873"><ele>804.0</ele><time>2026-04-29T07:31:14.998Z</time></trkpt><trkpt lat="39.81747811852489" lon="9.45261520567771"><ele>804.4000000000001</ele><time>2026-04-29T07:31:15.998Z</time></trkpt><trkpt lat="39.81746596761572" lon="9.452477093975876"><ele>804.8</ele><time>2026-04-29T07:31:16.998Z</time></trkpt><trkpt lat="39.81745237155507" lon="9.452349013234663"><ele>805.2</ele><time>2026-04-29T07:31:17.998Z</time></trkpt><trkpt lat="39.817434045798315" lon="9.452221194633053"><ele>805.5999999999999</ele><time>2026-04-29T07:31:18.998Z</time></trkpt><trkpt lat="39.817414050360526" lon="9.45209593671472"><ele>806.0</ele><time>2026-04-29T07:31:19.998Z</time></trkpt><trkpt lat="39.81739495600949" lon="9.451972342584385"><ele>806.1666666666667</ele><time>2026-04-29T07:31:20.998Z</time></trkpt><trkpt lat="39.81738032903345" lon="9.451849050335488"><ele>806.3333333333334</ele><time>2026-04-29T07:31:21.998Z</time></trkpt><trkpt lat="39.81735918087217" lon="9.451731250019733"><ele>806.5</ele><time>2026-04-29T07:31:22.998Z</time></trkpt><trkpt lat="39.81734247317595" lon="9.451622870516944"><ele>806.6666666666667</ele><time>2026-04-29T07:31:23.998Z</time></trkpt><trkpt lat="39.81732210863848" lon="9.451513598447534"><ele>806.8333333333334</ele><time>2026-04-29T07:31:24.998Z</time></trkpt><trkpt lat="39.81732464823142" lon="9.451428795857526"><ele>807.0</ele><time>2026-04-29T07:31:25.998Z</time></trkpt><trkpt lat="39.81740042726203" lon="9.451349160667517"><ele>807.0</ele><time>2026-04-29T07:31:27.998Z</time></trkpt><trkpt lat="39.817541505503634" lon="9.451300450339224"><ele>807.0</ele><time>2026-04-29T07:31:29.998Z</time></trkpt><trkpt lat="39.81763611084463" lon="9.451263191130613"><ele>807.0</ele><time>2026-04-29T07:31:30.998Z</time></trkpt><trkpt lat="39.81773303280542" lon="9.451229698245928"><ele>807.0</ele><time>2026-04-29T07:31:31.998Z</time></trkpt><trkpt lat="39.817837408616604" lon="9.451197103566624"><ele>807.1666666666666</ele><time>2026-04-29T07:31:32.998Z</time></trkpt><trkpt lat="39.81791854527219" lon="9.451162262237217"><ele>807.3333333333333</ele><time>2026-04-29T07:31:33.998Z</time></trkpt><trkpt lat="39.81799844261185" lon="9.451151946746561"><ele>807.5</ele><time>2026-04-29T07:31:34.998Z</time></trkpt><trkpt lat="39.8180861725332" lon="9.45115516370743"><ele>807.6666666666666</ele><time>2026-04-29T07:31:35.998Z</time></trkpt><trkpt lat="39.81816690422089" lon="9.451171089442228"><ele>807.8333333333333</ele><time>2026-04-29T07:31:36.998Z</time></trkpt><trkpt lat="39.81824907847737" lon="9.451183039273905"><ele>808.0</ele><time>2026-04-29T07:31:37.997Z</time></trkpt><trkpt lat="39.818342903155916" lon="9.45118317539386"><ele>808.0</ele><time>2026-04-29T07:31:38.997Z</time></trkpt><trkpt lat="39.818449757172694" lon="9.451176598317968"><ele>808.0</ele><time>2026-04-29T07:31:39.997Z</time></trkpt><trkpt lat="39.818557018484405" lon="9.451153950911802"><ele>808.0</ele><time>2026-04-29T07:31:40.998Z</time></trkpt><trkpt lat="39.818663627053624" lon="9.4511243482301"><ele>808.0</ele><time>2026-04-29T07:31:41.997Z</time></trkpt><trkpt lat="39.81877579978486" lon="9.451102633161307"><ele>808.0</ele><time>2026-04-29T07:31:42.997Z</time></trkpt><trkpt lat="39.81887465604718" lon="9.451079804325222"><ele>807.9999999999999</ele><time>2026-04-29T07:31:43.998Z</time></trkpt><trkpt lat="39.81896523686265" lon="9.451067964354493"><ele>808.0</ele><time>2026-04-29T07:31:44.997Z</time></trkpt><trkpt lat="39.81904167376378" lon="9.451051673023613"><ele>808.0</ele><time>2026-04-29T07:31:45.997Z</time></trkpt><trkpt lat="39.81912712279817" lon="9.451042511744568"><ele>808.0</ele><time>2026-04-29T07:31:46.997Z</time></trkpt><trkpt lat="39.81921066471421" lon="9.451029347679102"><ele>807.9999999999999</ele><time>2026-04-29T07:31:47.997Z</time></trkpt><trkpt lat="39.819292073044274" lon="9.451007278013458"><ele>808.0</ele><time>2026-04-29T07:31:48.997Z</time></trkpt><trkpt lat="39.81938587966112" lon="9.450991137605095"><ele>808.2</ele><time>2026-04-29T07:31:49.997Z</time></trkpt><trkpt lat="39.81948872595821" lon="9.450974657455893"><ele>808.4</ele><time>2026-04-29T07:31:50.997Z</time></trkpt><trkpt lat="39.81958747862117" lon="9.45095081646812"><ele>808.6</ele><time>2026-04-29T07:31:51.997Z</time></trkpt><trkpt lat="39.81969078976732" lon="9.450934102882412"><ele>808.8000000000001</ele><time>2026-04-29T07:31:52.997Z</time></trkpt><trkpt lat="39.819790385634725" lon="9.450914087834642"><ele>809.0</ele><time>2026-04-29T07:31:53.997Z</time></trkpt><trkpt lat="39.81989422858378" lon="9.45088885938459"><ele>809.0000000000001</ele><time>2026-04-29T07:31:54.997Z</time></trkpt><trkpt lat="39.819985129197256" lon="9.450859553601877"><ele>809.0</ele><time>2026-04-29T07:31:55.997Z</time></trkpt><trkpt lat="39.8200683515421" lon="9.450830583360624"><ele>809.0</ele><time>2026-04-29T07:31:56.997Z</time></trkpt><trkpt lat="39.8201536515684" lon="9.450798077121977"><ele>809.0</ele><time>2026-04-29T07:31:57.997Z</time></trkpt><trkpt lat="39.82023518350479" lon="9.450788097876133"><ele>809.0000000000001</ele><time>2026-04-29T07:31:58.997Z</time></trkpt><trkpt lat="39.82029790305086" lon="9.450767524058671"><ele>809.0</ele><time>2026-04-29T07:31:59.997Z</time></trkpt><trkpt lat="39.82039745517565" lon="9.450732579376085"><ele>809.3333333333334</ele><time>2026-04-29T07:32:01.997Z</time></trkpt><trkpt lat="39.820500299725964" lon="9.450754910016501"><ele>809.6666666666667</ele><time>2026-04-29T07:32:04.997Z</time></trkpt><trkpt lat="39.82058178726802" lon="9.450791121719561"><ele>810.0</ele><time>2026-04-29T07:32:06.997Z</time></trkpt><trkpt lat="39.82065300634813" lon="9.450796118715457"><ele>810.3333333333333</ele><time>2026-04-29T07:32:08.997Z</time></trkpt><trkpt lat="39.820762000372866" lon="9.45083817010591"><ele>810.6666666666666</ele><time>2026-04-29T07:32:11.997Z</time></trkpt><trkpt lat="39.82082644464357" lon="9.450859601498578"><ele>811.0</ele><time>2026-04-29T07:32:12.997Z</time></trkpt><trkpt lat="39.820891905589754" lon="9.45089487971564"><ele>813.4</ele><time>2026-04-29T07:32:13.997Z</time></trkpt><trkpt lat="39.82099796105792" lon="9.450969269099811"><ele>815.8</ele><time>2026-04-29T07:32:15.997Z</time></trkpt><trkpt lat="39.821088928585276" lon="9.451018869533245"><ele>818.1999999999999</ele><time>2026-04-29T07:32:17.997Z</time></trkpt><trkpt lat="39.82118988898931" lon="9.451047901203342"><ele>820.5999999999999</ele><time>2026-04-29T07:32:19.997Z</time></trkpt><trkpt lat="39.821309248495574" lon="9.451082832110012"><ele>823.0</ele><time>2026-04-29T07:32:21.997Z</time></trkpt><trkpt lat="39.82138265626901" lon="9.451106231145353"><ele>822.9999999999999</ele><time>2026-04-29T07:32:22.997Z</time></trkpt><trkpt lat="39.821463066084846" lon="9.451132642772977"><ele>823.0</ele><time>2026-04-29T07:32:23.997Z</time></trkpt><trkpt lat="39.821532057515455" lon="9.45116200448989"><ele>823.0</ele><time>2026-04-29T07:32:24.997Z</time></trkpt><trkpt lat="39.82159186617159" lon="9.451187899439583"><ele>823.0</ele><time>2026-04-29T07:32:25.997Z</time></trkpt><trkpt lat="39.82165099164216" lon="9.451217979013027"><ele>822.9999999999999</ele><time>2026-04-29T07:32:26.997Z</time></trkpt><trkpt lat="39.821748079886625" lon="9.451313552986056"><ele>823.0</ele><time>2026-04-29T07:32:28.997Z</time></trkpt><trkpt lat="39.82181796853873" lon="9.45140666468816"><ele>823.0</ele><time>2026-04-29T07:32:30.997Z</time></trkpt><trkpt lat="39.821750766443735" lon="9.451300812666245"><ele>823.0</ele><time>2026-04-29T07:32:38.997Z</time></trkpt><trkpt lat="39.82170650649669" lon="9.45122858900534"><ele>823.0</ele><time>2026-04-29T07:32:39.997Z</time></trkpt><trkpt lat="39.82165495191663" lon="9.451167157099107"><ele>823.0</ele><time>2026-04-29T07:32:40.997Z</time></trkpt><trkpt lat="39.82159734273181" lon="9.451089639221596"><ele>823.0</ele><time>2026-04-29T07:32:41.997Z</time></trkpt><trkpt lat="39.82248607568655" lon="9.452166066103647"><ele>822.6666666666666</ele><time>2026-04-29T07:32:42.997Z</time></trkpt><trkpt lat="39.82254525783357" lon="9.452238998074948"><ele>822.3333333333333</ele><time>2026-04-29T07:32:43.997Z</time></trkpt><trkpt lat="39.82261577254576" lon="9.452308160243712"><ele>822.0</ele><time>2026-04-29T07:32:44.997Z</time></trkpt><trkpt lat="39.822677378764084" lon="9.452370631085488"><ele>821.6666666666667</ele><time>2026-04-29T07:32:45.997Z</time></trkpt><trkpt lat="39.822740804333925" lon="9.452433842333944"><ele>821.3333333333334</ele><time>2026-04-29T07:32:46.997Z</time></trkpt><trkpt lat="39.82280746529344" lon="9.45251255352408"><ele>821.0</ele><time>2026-04-29T07:32:47.997Z</time></trkpt><trkpt lat="39.82287887417396" lon="9.452605215173115"><ele>821.1666666666667</ele><time>2026-04-29T07:32:48.997Z</time></trkpt><trkpt lat="39.82294748724439" lon="9.452696676244834"><ele>821.3333333333334</ele><time>2026-04-29T07:32:49.998Z</time></trkpt><trkpt lat="39.82300567834179" lon="9.452775974071898"><ele>821.5</ele><time>2026-04-29T07:32:50.998Z</time></trkpt><trkpt lat="39.82305905148887" lon="9.452839129350501"><ele>821.6666666666667</ele><time>2026-04-29T07:32:51.998Z</time></trkpt><trkpt lat="39.82311490586527" lon="9.452887026297915"><ele>821.8333333333334</ele><time>2026-04-29T07:32:52.998Z</time></trkpt><trkpt lat="39.8231766674606" lon="9.452930184079072"><ele>822.0</ele><time>2026-04-29T07:32:53.998Z</time></trkpt><trkpt lat="39.82324477106662" lon="9.452976880984725"><ele>822.0</ele><time>2026-04-29T07:32:54.998Z</time></trkpt><trkpt lat="39.82331153329636" lon="9.453039437589771"><ele>822.0</ele><time>2026-04-29T07:32:55.998Z</time></trkpt><trkpt lat="39.823364377008666" lon="9.453112571588619"><ele>822.0</ele><time>2026-04-29T07:32:56.998Z</time></trkpt><trkpt lat="39.8234123749476" lon="9.453229477032295"><ele>822.0</ele><time>2026-04-29T07:32:58.998Z</time></trkpt><trkpt lat="39.823447317691624" lon="9.453350523470897"><ele>822.0</ele><time>2026-04-29T07:33:00.998Z</time></trkpt><trkpt lat="39.82349611030787" lon="9.453410991902517"><ele>822.0</ele><time>2026-04-29T07:33:02.998Z</time></trkpt><trkpt lat="39.823564529844774" lon="9.453438437575219"><ele>823.5</ele><time>2026-04-29T07:33:04.998Z</time></trkpt><trkpt lat="39.82366227995559" lon="9.453510629755083"><ele>825.0</ele><time>2026-04-29T07:33:06.998Z</time></trkpt><trkpt lat="39.82370994917369" lon="9.453569867315716"><ele>826.5</ele><time>2026-04-29T07:33:07.998Z</time></trkpt><trkpt lat="39.82375238012119" lon="9.453637825364119"><ele>828.0</ele><time>2026-04-29T07:33:08.998Z</time></trkpt><trkpt lat="39.823816763794426" lon="9.453769413514696"><ele>829.5</ele><time>2026-04-29T07:33:10.998Z</time></trkpt><trkpt lat="39.82386118800659" lon="9.453841697586318"><ele>831.0</ele><time>2026-04-29T07:33:11.998Z</time></trkpt><trkpt lat="39.82390100954685" lon="9.45392487417144"><ele>831.0</ele><time>2026-04-29T07:33:12.998Z</time></trkpt><trkpt lat="39.82395831370483" lon="9.453997093337248"><ele>831.0</ele><time>2026-04-29T07:33:13.998Z</time></trkpt><trkpt lat="39.82401044959799" lon="9.454060517619974"><ele>831.0</ele><time>2026-04-29T07:33:14.998Z</time></trkpt><trkpt lat="39.824094979404514" lon="9.454129376659626"><ele>831.0</ele><time>2026-04-29T07:33:15.998Z</time></trkpt><trkpt lat="39.82416197231513" lon="9.454185598952828"><ele>831.0</ele><time>2026-04-29T07:33:16.998Z</time></trkpt><trkpt lat="39.824209902330935" lon="9.454243281535797"><ele>831.0</ele><time>2026-04-29T07:33:17.998Z</time></trkpt><trkpt lat="39.82425160067551" lon="9.454331240913824"><ele>831.0</ele><time>2026-04-29T07:33:19.998Z</time></trkpt><trkpt lat="39.82428304384329" lon="9.45441435687722"><ele>831.0</ele><time>2026-04-29T07:33:51.997Z</time></trkpt><trkpt lat="39.82426907582613" lon="9.454523977684923"><ele>831.0</ele><time>2026-04-29T07:33:53.998Z</time></trkpt><trkpt lat="39.82426280791187" lon="9.45465669619423"><ele>831.0</ele><time>2026-04-29T07:33:55.997Z</time></trkpt><trkpt lat="39.82429579856385" lon="9.454805865096917"><ele>831.0</ele><time>2026-04-29T07:33:57.997Z</time></trkpt><trkpt lat="39.8243408313722" lon="9.454967796323254"><ele>833.0</ele><time>2026-04-29T07:33:59.997Z</time></trkpt><trkpt lat="39.82435293665947" lon="9.455057163206677"><ele>835.0</ele><time>2026-04-29T07:34:00.997Z</time></trkpt><trkpt lat="39.82436074539412" lon="9.455162293483882"><ele>837.0</ele><time>2026-04-29T07:34:01.997Z</time></trkpt><trkpt lat="39.82436870414389" lon="9.45527815263216"><ele>839.0</ele><time>2026-04-29T07:34:02.997Z</time></trkpt><trkpt lat="39.82438324347087" lon="9.455386190620242"><ele>841.0</ele><time>2026-04-29T07:34:03.997Z</time></trkpt><trkpt lat="39.82440312967609" lon="9.455502451148725"><ele>843.0</ele><time>2026-04-29T07:34:04.997Z</time></trkpt><trkpt lat="39.82442492848569" lon="9.455622463460157"><ele>843.0</ele><time>2026-04-29T07:34:05.997Z</time></trkpt><trkpt lat="39.824441706205135" lon="9.455736154534076"><ele>843.0</ele><time>2026-04-29T07:34:06.997Z</time></trkpt><trkpt lat="39.824463916471245" lon="9.455849133141877"><ele>843.0</ele><time>2026-04-29T07:34:07.997Z</time></trkpt><trkpt lat="39.82446718813988" lon="9.455937159570754"><ele>843.0</ele><time>2026-04-29T07:34:08.998Z</time></trkpt><trkpt lat="39.8244827257125" lon="9.456068043474552"><ele>843.0</ele><time>2026-04-29T07:34:10.998Z</time></trkpt><trkpt lat="39.82455713070547" lon="9.456174735147924"><ele>843.0</ele><time>2026-04-29T07:34:13.998Z</time></trkpt><trkpt lat="39.824632985685156" lon="9.45622958371672"><ele>843.0</ele><time>2026-04-29T07:34:14.998Z</time></trkpt><trkpt lat="39.82469171851625" lon="9.456292218475957"><ele>843.0</ele><time>2026-04-29T07:34:15.998Z</time></trkpt><trkpt lat="39.824743911334465" lon="9.45635820700449"><ele>843.0</ele><time>2026-04-29T07:34:16.998Z</time></trkpt><trkpt lat="39.824824467495674" lon="9.456483999084973"><ele>843.0</ele><time>2026-04-29T07:34:18.998Z</time></trkpt><trkpt lat="39.82488716945294" lon="9.456562918140047"><ele>843.0</ele><time>2026-04-29T07:34:19.998Z</time></trkpt><trkpt lat="39.82496304004464" lon="9.456658465290394"><ele>843.5</ele><time>2026-04-29T07:34:20.998Z</time></trkpt><trkpt lat="39.82503824420601" lon="9.456753745622466"><ele>844.0</ele><time>2026-04-29T07:34:21.998Z</time></trkpt><trkpt lat="39.82509695569916" lon="9.456833152667743"><ele>844.5</ele><time>2026-04-29T07:34:22.998Z</time></trkpt><trkpt lat="39.82515584025453" lon="9.456903836936746"><ele>845.0</ele><time>2026-04-29T07:34:23.998Z</time></trkpt><trkpt lat="39.825201993737195" lon="9.456961423047236"><ele>845.5</ele><time>2026-04-29T07:34:24.998Z</time></trkpt><trkpt lat="39.82526350945102" lon="9.457040118465207"><ele>846.0</ele><time>2026-04-29T07:34:26.998Z</time></trkpt><trkpt lat="39.825314263485794" lon="9.4570924792597"><ele>846.0</ele><time>2026-04-29T07:34:30.998Z</time></trkpt><trkpt lat="39.82539882891801" lon="9.457074246642813"><ele>846.0</ele><time>2026-04-29T07:34:38.998Z</time></trkpt><trkpt lat="39.825405758727605" lon="9.456966187183541"><ele>846.0</ele><time>2026-04-29T07:34:43.998Z</time></trkpt><trkpt lat="39.82534270539383" lon="9.456847995701095"><ele>846.0</ele><time>2026-04-29T07:34:45.998Z</time></trkpt><trkpt lat="39.82528003204114" lon="9.456696396291324"><ele>846.0</ele><time>2026-04-29T07:34:47.998Z</time></trkpt><trkpt lat="39.8252649867042" lon="9.456595457655068"><ele>846.0</ele><time>2026-04-29T07:34:49.998Z</time></trkpt><trkpt lat="39.8252318436053" lon="9.456470617075349"><ele>846.0</ele><time>2026-04-29T07:34:51.998Z</time></trkpt><trkpt lat="39.825160111453805" lon="9.456316971455674"><ele>846.0</ele><time>2026-04-29T07:34:53.998Z</time></trkpt><trkpt lat="39.82512331813446" lon="9.456246517662095"><ele>846.0</ele><time>2026-04-29T07:34:54.998Z</time></trkpt><trkpt lat="39.82508879285953" lon="9.45614663000624"><ele>846.0</ele><time>2026-04-29T07:34:55.998Z</time></trkpt><trkpt lat="39.82507925223948" lon="9.456061569041244"><ele>845.5</ele><time>2026-04-29T07:34:56.998Z</time></trkpt><trkpt lat="39.82505004004563" lon="9.45590797179085"><ele>845.0</ele><time>2026-04-29T07:34:58.998Z</time></trkpt><trkpt lat="39.82503828565349" lon="9.455805657681308"><ele>844.5</ele><time>2026-04-29T07:34:59.998Z</time></trkpt><trkpt lat="39.82504221839559" lon="9.455705008734112"><ele>844.0</ele><time>2026-04-29T07:35:00.998Z</time></trkpt><trkpt lat="39.825036272433046" lon="9.45559814402076"><ele>843.5</ele><time>2026-04-29T07:35:01.998Z</time></trkpt><trkpt lat="39.825040668727716" lon="9.455514298507772"><ele>843.0</ele><time>2026-04-29T07:35:02.998Z</time></trkpt><trkpt lat="39.825042338664844" lon="9.455425589556324"><ele>844.4</ele><time>2026-04-29T07:35:03.998Z</time></trkpt><trkpt lat="39.82504304860542" lon="9.455264261956104"><ele>845.8</ele><time>2026-04-29T07:35:05.998Z</time></trkpt><trkpt lat="39.825035783968616" lon="9.45517348248979"><ele>847.2</ele><time>2026-04-29T07:35:06.998Z</time></trkpt><trkpt lat="39.82500308131132" lon="9.455005404686007"><ele>848.6</ele><time>2026-04-29T07:35:08.998Z</time></trkpt><trkpt lat="39.82498648729056" lon="9.454914876534858"><ele>850.0</ele><time>2026-04-29T07:35:09.998Z</time></trkpt><trkpt lat="39.82496630971911" lon="9.454820475852507"><ele>849.9999999999999</ele><time>2026-04-29T07:35:10.998Z</time></trkpt><trkpt lat="39.8249546859949" lon="9.454732414015806"><ele>850.0</ele><time>2026-04-29T07:35:11.998Z</time></trkpt><trkpt lat="39.82495830920531" lon="9.454639484546336"><ele>850.0</ele><time>2026-04-29T07:35:12.998Z</time></trkpt><trkpt lat="39.824996367060365" lon="9.454502222980622"><ele>850.0</ele><time>2026-04-29T07:35:14.998Z</time></trkpt><trkpt lat="39.82504529432975" lon="9.454403569513357"><ele>849.9999999999999</ele><time>2026-04-29T07:35:16.998Z</time></trkpt><trkpt lat="39.825103583210904" lon="9.45430151169116"><ele>850.0</ele><time>2026-04-29T07:35:18.998Z</time></trkpt><trkpt lat="39.82513942705438" lon="9.454222747338397"><ele>856.3333333333333</ele><time>2026-04-29T07:35:20.998Z</time></trkpt><trkpt lat="39.82518552399505" lon="9.454164596492701"><ele>862.6666666666666</ele><time>2026-04-29T07:35:22.998Z</time></trkpt><trkpt lat="39.82524815272518" lon="9.454075006278538"><ele>869.0</ele><time>2026-04-29T07:35:24.998Z</time></trkpt><trkpt lat="39.82532376599614" lon="9.454006524423768"><ele>875.3333333333333</ele><time>2026-04-29T07:35:26.998Z</time></trkpt><trkpt lat="39.8253939367342" lon="9.45391931335262"><ele>881.6666666666666</ele><time>2026-04-29T07:35:28.998Z</time></trkpt><trkpt lat="39.8254506108166" lon="9.453812408134695"><ele>888.0</ele><time>2026-04-29T07:35:30.998Z</time></trkpt><trkpt lat="39.82546248334867" lon="9.45372277640834"><ele>888.4</ele><time>2026-04-29T07:35:32.998Z</time></trkpt><trkpt lat="39.82543727726124" lon="9.453587816879297"><ele>888.8</ele><time>2026-04-29T07:35:34.998Z</time></trkpt><trkpt lat="39.825397241978486" lon="9.4534754757543"><ele>889.2</ele><time>2026-04-29T07:35:36.998Z</time></trkpt><trkpt lat="39.82535651751345" lon="9.453412687215238"><ele>889.6</ele><time>2026-04-29T07:35:37.998Z</time></trkpt><trkpt lat="39.82528451656729" lon="9.453298981868372"><ele>890.0</ele><time>2026-04-29T07:35:39.998Z</time></trkpt><trkpt lat="39.82522585306427" lon="9.45317691041379"><ele>890.0000000000001</ele><time>2026-04-29T07:35:41.998Z</time></trkpt><trkpt lat="39.825200058503526" lon="9.453021706635838"><ele>890.0</ele><time>2026-04-29T07:35:43.998Z</time></trkpt><trkpt lat="39.8251845052451" lon="9.452936595230664"><ele>890.0</ele><time>2026-04-29T07:35:44.998Z</time></trkpt><trkpt lat="39.82517025147286" lon="9.452850909180617"><ele>890.0</ele><time>2026-04-29T07:35:45.998Z</time></trkpt><trkpt lat="39.82514718008641" lon="9.452766799432025"><ele>890.0000000000001</ele><time>2026-04-29T07:35:46.998Z</time></trkpt><trkpt lat="39.82509057961539" lon="9.452645621283287"><ele>890.0</ele><time>2026-04-29T07:35:48.998Z</time></trkpt><trkpt lat="39.82514559201736" lon="9.452575963469252"><ele>893.0</ele><time>2026-04-29T07:35:51.997Z</time></trkpt><trkpt lat="39.82522955488838" lon="9.452621564447377"><ele>896.0</ele><time>2026-04-29T07:35:53.997Z</time></trkpt><trkpt lat="39.82532345342489" lon="9.452705302987686"><ele>899.0</ele><time>2026-04-29T07:35:55.997Z</time></trkpt><trkpt lat="39.825401534549556" lon="9.45277805659573"><ele>902.0</ele><time>2026-04-29T07:35:57.997Z</time></trkpt><trkpt lat="39.825471334328" lon="9.452815803729454"><ele>905.0</ele><time>2026-04-29T07:35:59.997Z</time></trkpt><trkpt lat="39.82556243456095" lon="9.452853833938818"><ele>905.0000000000001</ele><time>2026-04-29T07:36:01.997Z</time></trkpt><trkpt lat="39.825624581034866" lon="9.452876399488826"><ele>905.0</ele><time>2026-04-29T07:36:02.997Z</time></trkpt><trkpt lat="39.82568724055948" lon="9.452904194621953"><ele>905.0</ele><time>2026-04-29T07:36:03.997Z</time></trkpt><trkpt lat="39.825795177219035" lon="9.452943567519798"><ele>905.0</ele><time>2026-04-29T07:36:05.997Z</time></trkpt><trkpt lat="39.8258986093076" lon="9.452947194119115"><ele>905.0000000000001</ele><time>2026-04-29T07:36:07.997Z</time></trkpt><trkpt lat="39.82599916919674" lon="9.452943684090991"><ele>905.0</ele><time>2026-04-29T07:36:09.997Z</time></trkpt><trkpt lat="39.82609719621676" lon="9.453018721804217"><ele>906.3333333333334</ele><time>2026-04-29T07:36:11.997Z</time></trkpt><trkpt lat="39.82616401970086" lon="9.453115207865137"><ele>907.6666666666667</ele><time>2026-04-29T07:36:13.997Z</time></trkpt><trkpt lat="39.826205340254134" lon="9.453205885591919"><ele>909.0</ele><time>2026-04-29T07:36:15.997Z</time></trkpt><trkpt lat="39.82626319922875" lon="9.453300141086984"><ele>910.3333333333333</ele><time>2026-04-29T07:36:17.997Z</time></trkpt><trkpt lat="39.8263058749508" lon="9.453369939176696"><ele>911.6666666666666</ele><time>2026-04-29T07:36:18.997Z</time></trkpt><trkpt lat="39.82634942706044" lon="9.453440484369741"><ele>913.0</ele><time>2026-04-29T07:36:19.997Z</time></trkpt><trkpt lat="39.82638944050467" lon="9.453518729358606"><ele>913.0</ele><time>2026-04-29T07:36:20.997Z</time></trkpt><trkpt lat="39.826433333707186" lon="9.45359973297689"><ele>913.0</ele><time>2026-04-29T07:36:21.997Z</time></trkpt><trkpt lat="39.826486907215354" lon="9.453765047738797"><ele>913.0</ele><time>2026-04-29T07:36:23.997Z</time></trkpt><trkpt lat="39.82655855362211" lon="9.453868090815586"><ele>913.0</ele><time>2026-04-29T07:36:25.997Z</time></trkpt><trkpt lat="39.82663612134328" lon="9.453860239042223"><ele>913.0</ele><time>2026-04-29T07:36:27.997Z</time></trkpt><trkpt lat="39.82671529131339" lon="9.453836650161291"><ele>913.5999999999999</ele><time>2026-04-29T07:36:29.997Z</time></trkpt><trkpt lat="39.8267478450223" lon="9.453947599907885"><ele>914.1999999999999</ele><time>2026-04-29T07:36:32.997Z</time></trkpt><trkpt lat="39.826693293332546" lon="9.45408116757397"><ele>914.8</ele><time>2026-04-29T07:36:34.997Z</time></trkpt><trkpt lat="39.82666712270153" lon="9.454207678739186"><ele>915.4</ele><time>2026-04-29T07:36:36.997Z</time></trkpt><trkpt lat="39.82663026381912" lon="9.454329324816307"><ele>916.0</ele><time>2026-04-29T07:36:38.998Z</time></trkpt><trkpt lat="39.826581859451295" lon="9.454449560606575"><ele>915.9999999999999</ele><time>2026-04-29T07:36:40.998Z</time></trkpt><trkpt lat="39.826562566313804" lon="9.45453905185303"><ele>916.0</ele><time>2026-04-29T07:36:46.997Z</time></trkpt><trkpt lat="39.82652713607327" lon="9.454619359575675"><ele>916.0</ele><time>2026-04-29T07:36:48.997Z</time></trkpt><trkpt lat="39.82650654231426" lon="9.454723140315494"><ele>916.0</ele><time>2026-04-29T07:36:50.997Z</time></trkpt><trkpt lat="39.826519464750504" lon="9.454842325175008"><ele>915.9999999999999</ele><time>2026-04-29T07:36:52.997Z</time></trkpt><trkpt lat="39.826557946971704" lon="9.454957116065216"><ele>916.0</ele><time>2026-04-29T07:36:54.998Z</time></trkpt><trkpt lat="39.82661696480401" lon="9.45503746758196"><ele>916.8</ele><time>2026-04-29T07:36:56.945Z</time></trkpt><trkpt lat="39.82672883824111" lon="9.45508008761041"><ele>917.5999999999999</ele><time>2026-04-29T07:36:58.945Z</time></trkpt><trkpt lat="39.82685961453671" lon="9.45514574933689"><ele>918.4</ele><time>2026-04-29T07:37:00.945Z</time></trkpt><trkpt lat="39.82694197781841" lon="9.455173444917783"><ele>919.2</ele><time>2026-04-29T07:37:01.945Z</time></trkpt><trkpt lat="39.827011882549115" lon="9.45519642179286"><ele>920.0</ele><time>2026-04-29T07:37:02.945Z</time></trkpt><trkpt lat="39.827096242411315" lon="9.455214210446872"><ele>923.2</ele><time>2026-04-29T07:37:03.945Z</time></trkpt><trkpt lat="39.82716267933361" lon="9.455216024846266"><ele>926.4</ele><time>2026-04-29T07:37:04.945Z</time></trkpt><trkpt lat="39.827290502942965" lon="9.455211191330477"><ele>929.5999999999999</ele><time>2026-04-29T07:37:06.945Z</time></trkpt><trkpt lat="39.82741127265456" lon="9.455236701160267"><ele>932.8</ele><time>2026-04-29T07:37:08.945Z</time></trkpt><trkpt lat="39.82748285745101" lon="9.455260938576389"><ele>936.0</ele><time>2026-04-29T07:37:09.945Z</time></trkpt><trkpt lat="39.82755791507665" lon="9.455281588098323"><ele>936.0</ele><time>2026-04-29T07:37:10.945Z</time></trkpt><trkpt lat="39.82763186173768" lon="9.455287452106054"><ele>936.0</ele><time>2026-04-29T07:37:11.945Z</time></trkpt><trkpt lat="39.827707596195204" lon="9.45528351093641"><ele>936.0</ele><time>2026-04-29T07:37:12.945Z</time></trkpt><trkpt lat="39.82778411142698" lon="9.455292122413871"><ele>936.0</ele><time>2026-04-29T07:37:13.945Z</time></trkpt><trkpt lat="39.82786669957778" lon="9.455321070925663"><ele>936.0</ele><time>2026-04-29T07:37:14.945Z</time></trkpt><trkpt lat="39.82794053624812" lon="9.455368389193609"><ele>936.0</ele><time>2026-04-29T07:37:15.945Z</time></trkpt><trkpt lat="39.82802220741962" lon="9.455387020147615"><ele>938.1666666666666</ele><time>2026-04-29T07:37:16.945Z</time></trkpt><trkpt lat="39.82814929356399" lon="9.45536913474287"><ele>940.3333333333333</ele><time>2026-04-29T07:37:18.945Z</time></trkpt><trkpt lat="39.82823169340953" lon="9.455408242078159"><ele>942.5</ele><time>2026-04-29T07:37:19.945Z</time></trkpt><trkpt lat="39.8283052023067" lon="9.455453863113142"><ele>944.6666666666666</ele><time>2026-04-29T07:37:20.945Z</time></trkpt><trkpt lat="39.82836622103968" lon="9.455502015653963"><ele>946.8333333333333</ele><time>2026-04-29T07:37:21.945Z</time></trkpt><trkpt lat="39.82841323767832" lon="9.455559527740267"><ele>949.0</ele><time>2026-04-29T07:37:22.945Z</time></trkpt><trkpt lat="39.82845200217635" lon="9.455626347141319"><ele>947.4999999999999</ele><time>2026-04-29T07:37:23.945Z</time></trkpt><trkpt lat="39.82847947770688" lon="9.455714492450536"><ele>946.0</ele><time>2026-04-29T07:37:24.945Z</time></trkpt><trkpt lat="39.82852870453325" lon="9.455799820690142"><ele>944.5</ele><time>2026-04-29T07:37:25.945Z</time></trkpt><trkpt lat="39.82861013606256" lon="9.455922868445752"><ele>943.0</ele><time>2026-04-29T07:37:27.945Z</time></trkpt><trkpt lat="39.82867345945345" lon="9.455963986850934"><ele>941.4999999999999</ele><time>2026-04-29T07:37:28.945Z</time></trkpt><trkpt lat="39.82874689977275" lon="9.455999083883034"><ele>940.0</ele><time>2026-04-29T07:37:29.945Z</time></trkpt><trkpt lat="39.828821744218395" lon="9.456025262035553"><ele>939.9999999999999</ele><time>2026-04-29T07:37:30.945Z</time></trkpt><trkpt lat="39.82890669687973" lon="9.456045411338893"><ele>940.0</ele><time>2026-04-29T07:37:31.945Z</time></trkpt><trkpt lat="39.82899956157094" lon="9.456068430354028"><ele>940.0</ele><time>2026-04-29T07:37:32.945Z</time></trkpt><trkpt lat="39.82906779817319" lon="9.456086463321192"><ele>940.0</ele><time>2026-04-29T07:37:33.945Z</time></trkpt><trkpt lat="39.82913845289793" lon="9.456113498802026"><ele>939.9999999999999</ele><time>2026-04-29T07:37:34.945Z</time></trkpt><trkpt lat="39.82921064007292" lon="9.456174575649596"><ele>940.0</ele><time>2026-04-29T07:37:35.945Z</time></trkpt><trkpt lat="39.82927206656371" lon="9.456246417664897"><ele>939.9999999999999</ele><time>2026-04-29T07:37:36.945Z</time></trkpt><trkpt lat="39.82932707799078" lon="9.456321709142946"><ele>940.0</ele><time>2026-04-29T07:37:37.945Z</time></trkpt><trkpt lat="39.82939074033903" lon="9.456399833192343"><ele>940.0</ele><time>2026-04-29T07:37:38.945Z</time></trkpt><trkpt lat="39.829449553295916" lon="9.456485004601827"><ele>940.0</ele><time>2026-04-29T07:37:39.945Z</time></trkpt><trkpt lat="39.829504937658434" lon="9.456560121242703"><ele>939.9999999999999</ele><time>2026-04-29T07:37:40.945Z</time></trkpt><trkpt lat="39.82957110712783" lon="9.456639697714115"><ele>940.0</ele><time>2026-04-29T07:37:41.945Z</time></trkpt><trkpt lat="39.82964754847446" lon="9.45670954478804"><ele>940.0</ele><time>2026-04-29T07:37:42.945Z</time></trkpt><trkpt lat="39.82972327215558" lon="9.456767476592157"><ele>940.0</ele><time>2026-04-29T07:37:43.945Z</time></trkpt><trkpt lat="39.82980526712677" lon="9.456824580168428"><ele>940.0</ele><time>2026-04-29T07:37:44.945Z</time></trkpt><trkpt lat="39.82988567061603" lon="9.456880702523064"><ele>940.0</ele><time>2026-04-29T07:37:45.945Z</time></trkpt><trkpt lat="39.829965377328904" lon="9.456945237879934"><ele>940.0</ele><time>2026-04-29T07:37:46.945Z</time></trkpt><trkpt lat="39.83004823229899" lon="9.45702054500795"><ele>940.0</ele><time>2026-04-29T07:37:47.945Z</time></trkpt><trkpt lat="39.83013103741662" lon="9.457095878988472"><ele>940.0</ele><time>2026-04-29T07:37:48.945Z</time></trkpt><trkpt lat="39.83020554725079" lon="9.457188065944798"><ele>940.0</ele><time>2026-04-29T07:37:49.945Z</time></trkpt><trkpt lat="39.83029865459317" lon="9.457263316171764"><ele>940.0</ele><time>2026-04-29T07:37:50.945Z</time></trkpt><trkpt lat="39.830377516240866" lon="9.457336855972232"><ele>940.0</ele><time>2026-04-29T07:37:51.945Z</time></trkpt><trkpt lat="39.83047375007487" lon="9.457391779089017"><ele>938.4999999999999</ele><time>2026-04-29T07:37:52.945Z</time></trkpt><trkpt lat="39.83056517882883" lon="9.45746393826372"><ele>937.0</ele><time>2026-04-29T07:37:53.945Z</time></trkpt><trkpt lat="39.83062634756369" lon="9.457512206146781"><ele>935.5</ele><time>2026-04-29T07:37:54.945Z</time></trkpt><trkpt lat="39.83070540551542" lon="9.457532665442866"><ele>934.0</ele><time>2026-04-29T07:37:55.944Z</time></trkpt><trkpt lat="39.83076431082223" lon="9.457568214821041"><ele>932.4999999999999</ele><time>2026-04-29T07:37:56.943Z</time></trkpt><trkpt lat="39.83079941402852" lon="9.45763859642818"><ele>931.0</ele><time>2026-04-29T07:37:58.944Z</time></trkpt><trkpt lat="39.83077398782671" lon="9.457808825929527"><ele>931.0</ele><time>2026-04-29T07:38:00.943Z</time></trkpt><trkpt lat="39.83075560425664" lon="9.457894641766906"><ele>931.0</ele><time>2026-04-29T07:38:01.944Z</time></trkpt><trkpt lat="39.830762457834" lon="9.45798482249184"><ele>931.0</ele><time>2026-04-29T07:38:02.943Z</time></trkpt><trkpt lat="39.8307781652151" lon="9.45807037925688"><ele>931.0</ele><time>2026-04-29T07:38:03.943Z</time></trkpt><trkpt lat="39.830798705520564" lon="9.458176017521978"><ele>931.0</ele><time>2026-04-29T07:38:04.943Z</time></trkpt><trkpt lat="39.83083121608113" lon="9.458264190912868"><ele>931.0</ele><time>2026-04-29T07:38:05.944Z</time></trkpt><trkpt lat="39.83087306467155" lon="9.458339931225572"><ele>931.0</ele><time>2026-04-29T07:38:06.944Z</time></trkpt><trkpt lat="39.830926021853045" lon="9.45840979830626"><ele>933.4999999999999</ele><time>2026-04-29T07:38:07.944Z</time></trkpt><trkpt lat="39.830981857077134" lon="9.458469435916886"><ele>936.0</ele><time>2026-04-29T07:38:08.943Z</time></trkpt><trkpt lat="39.83103990239599" lon="9.458517893316449"><ele>938.5</ele><time>2026-04-29T07:38:09.943Z</time></trkpt><trkpt lat="39.831106104980826" lon="9.45855307225361"><ele>941.0</ele><time>2026-04-29T07:38:10.943Z</time></trkpt><trkpt lat="39.83117737147786" lon="9.458606508691993"><ele>943.4999999999999</ele><time>2026-04-29T07:38:11.943Z</time></trkpt><trkpt lat="39.831237476254024" lon="9.458659055840458"><ele>946.0</ele><time>2026-04-29T07:38:12.943Z</time></trkpt><trkpt lat="39.83130290138712" lon="9.458734087387487"><ele>942.4</ele><time>2026-04-29T07:38:13.943Z</time></trkpt><trkpt lat="39.831367244155295" lon="9.458811767929022"><ele>938.8</ele><time>2026-04-29T07:38:14.943Z</time></trkpt><trkpt lat="39.83143572128285" lon="9.458898239038904"><ele>935.1999999999999</ele><time>2026-04-29T07:38:15.943Z</time></trkpt><trkpt lat="39.83149855698903" lon="9.458986952240597"><ele>931.5999999999999</ele><time>2026-04-29T07:38:16.943Z</time></trkpt><trkpt lat="39.83155341604759" lon="9.459079114847716"><ele>928.0</ele><time>2026-04-29T07:38:17.943Z</time></trkpt><trkpt lat="39.83160972512349" lon="9.459182317928486"><ele>927.9999999999999</ele><time>2026-04-29T07:38:18.943Z</time></trkpt><trkpt lat="39.83165555152102" lon="9.459285647375935"><ele>928.0</ele><time>2026-04-29T07:38:19.943Z</time></trkpt><trkpt lat="39.83169511414791" lon="9.459398737965273"><ele>928.0</ele><time>2026-04-29T07:38:20.943Z</time></trkpt><trkpt lat="39.83171972548441" lon="9.459498816094793"><ele>928.0</ele><time>2026-04-29T07:38:21.943Z</time></trkpt><trkpt lat="39.83172731184987" lon="9.459597333605094"><ele>927.9999999999999</ele><time>2026-04-29T07:38:22.943Z</time></trkpt><trkpt lat="39.831726118179354" lon="9.459706605893384"><ele>928.0</ele><time>2026-04-29T07:38:23.943Z</time></trkpt><trkpt lat="39.831735983321906" lon="9.459804404596559"><ele>929.4999999999999</ele><time>2026-04-29T07:38:24.943Z</time></trkpt><trkpt lat="39.83175022564073" lon="9.459886084620464"><ele>931.0</ele><time>2026-04-29T07:38:25.943Z</time></trkpt><trkpt lat="39.831826541402016" lon="9.459984995697734"><ele>932.5</ele><time>2026-04-29T07:38:27.943Z</time></trkpt><trkpt lat="39.83186853247183" lon="9.460053369383967"><ele>934.0</ele><time>2026-04-29T07:38:28.943Z</time></trkpt><trkpt lat="39.83193479738412" lon="9.460105044399297"><ele>935.4999999999999</ele><time>2026-04-29T07:38:29.943Z</time></trkpt><trkpt lat="39.83200740748522" lon="9.460128451724994"><ele>937.0</ele><time>2026-04-29T07:38:30.943Z</time></trkpt><trkpt lat="39.832082310146816" lon="9.46013689540653"><ele>936.9999999999999</ele><time>2026-04-29T07:38:31.943Z</time></trkpt><trkpt lat="39.832161710584415" lon="9.460130669906581"><ele>937.0</ele><time>2026-04-29T07:38:32.943Z</time></trkpt><trkpt lat="39.832224677418644" lon="9.460161210755057"><ele>937.0</ele><time>2026-04-29T07:38:33.943Z</time></trkpt><trkpt lat="39.83230865546727" lon="9.460264767295707"><ele>937.0</ele><time>2026-04-29T07:38:35.943Z</time></trkpt><trkpt lat="39.832333015810825" lon="9.460368565811118"><ele>936.9999999999999</ele><time>2026-04-29T07:38:36.943Z</time></trkpt><trkpt lat="39.83237096074083" lon="9.460463452940557"><ele>937.0</ele><time>2026-04-29T07:38:37.943Z</time></trkpt><trkpt lat="39.83241113842376" lon="9.460557116681446"><ele>935.1666666666666</ele><time>2026-04-29T07:38:38.943Z</time></trkpt><trkpt lat="39.832425188845164" lon="9.460666187771077"><ele>933.3333333333333</ele><time>2026-04-29T07:38:39.943Z</time></trkpt><trkpt lat="39.832438736544354" lon="9.46077042017264"><ele>931.5</ele><time>2026-04-29T07:38:40.943Z</time></trkpt><trkpt lat="39.83245820215875" lon="9.460856399316949"><ele>929.6666666666667</ele><time>2026-04-29T07:38:41.943Z</time></trkpt><trkpt lat="39.83245668975667" lon="9.460949350015428"><ele>927.8333333333334</ele><time>2026-04-29T07:38:43.943Z</time></trkpt><trkpt lat="39.83239085782232" lon="9.46108510600862"><ele>926.0</ele><time>2026-04-29T07:38:45.943Z</time></trkpt><trkpt lat="39.83233439919885" lon="9.461135538127888"><ele>926.0</ele><time>2026-04-29T07:38:46.943Z</time></trkpt><trkpt lat="39.832197214344134" lon="9.461236326148764"><ele>925.9999999999999</ele><time>2026-04-29T07:38:48.943Z</time></trkpt><trkpt lat="39.83210405619502" lon="9.46128798919186"><ele>925.9999999999999</ele><time>2026-04-29T07:38:49.943Z</time></trkpt><trkpt lat="39.832017920717085" lon="9.461331733636245"><ele>926.0</ele><time>2026-04-29T07:38:50.943Z</time></trkpt><trkpt lat="39.83193396694898" lon="9.461364132691058"><ele>926.0</ele><time>2026-04-29T07:38:51.943Z</time></trkpt><trkpt lat="39.83185002788483" lon="9.461389795565541"><ele>926.6666666666667</ele><time>2026-04-29T07:38:52.943Z</time></trkpt><trkpt lat="39.831763202146526" lon="9.461416652871366"><ele>927.3333333333334</ele><time>2026-04-29T07:38:53.943Z</time></trkpt><trkpt lat="39.831671063884485" lon="9.461445756363487"><ele>928.0</ele><time>2026-04-29T07:38:54.943Z</time></trkpt><trkpt lat="39.83158095215251" lon="9.46144814002874"><ele>928.6666666666667</ele><time>2026-04-29T07:38:55.943Z</time></trkpt><trkpt lat="39.83149822452552" lon="9.461437781231917"><ele>929.3333333333334</ele><time>2026-04-29T07:38:56.943Z</time></trkpt><trkpt lat="39.83141352325296" lon="9.461428548986039"><ele>930.0</ele><time>2026-04-29T07:38:57.943Z</time></trkpt><trkpt lat="39.83132963176652" lon="9.461437691692682"><ele>930.0</ele><time>2026-04-29T07:38:58.943Z</time></trkpt><trkpt lat="39.83124685479589" lon="9.461449573637548"><ele>930.0</ele><time>2026-04-29T07:38:59.943Z</time></trkpt><trkpt lat="39.831160367999885" lon="9.461470349298203"><ele>930.0</ele><time>2026-04-29T07:39:00.943Z</time></trkpt><trkpt lat="39.83108116264767" lon="9.46148102337671"><ele>930.0</ele><time>2026-04-29T07:39:01.943Z</time></trkpt><trkpt lat="39.8310197333322" lon="9.461502037291952"><ele>930.0</ele><time>2026-04-29T07:39:02.943Z</time></trkpt><trkpt lat="39.83095865813879" lon="9.461531826813491"><ele>930.0</ele><time>2026-04-29T07:39:03.943Z</time></trkpt><trkpt lat="39.83089755448228" lon="9.461569346962797"><ele>930.0</ele><time>2026-04-29T07:39:04.943Z</time></trkpt><trkpt lat="39.83079441001479" lon="9.46165209159665"><ele>928.8</ele><time>2026-04-29T07:39:06.943Z</time></trkpt><trkpt lat="39.8307032779329" lon="9.46177893297209"><ele>927.6</ele><time>2026-04-29T07:39:08.943Z</time></trkpt><trkpt lat="39.83067714136052" lon="9.461885173262608"><ele>926.4000000000001</ele><time>2026-04-29T07:39:09.943Z</time></trkpt><trkpt lat="39.830651290020114" lon="9.461998981576496"><ele>925.2</ele><time>2026-04-29T07:39:10.943Z</time></trkpt><trkpt lat="39.83064105337611" lon="9.462114231999971"><ele>924.0</ele><time>2026-04-29T07:39:11.943Z</time></trkpt><trkpt lat="39.83062825988809" lon="9.462210669871114"><ele>924.0</ele><time>2026-04-29T07:39:12.943Z</time></trkpt><trkpt lat="39.83060879183033" lon="9.4622976768172"><ele>924.0000000000001</ele><time>2026-04-29T07:39:13.943Z</time></trkpt><trkpt lat="39.83060797367932" lon="9.46239078448446"><ele>924.0000000000001</ele><time>2026-04-29T07:39:14.943Z</time></trkpt><trkpt lat="39.83061135675307" lon="9.462547535317883"><ele>924.0</ele><time>2026-04-29T07:39:16.943Z</time></trkpt><trkpt lat="39.830624809296204" lon="9.462641275051789"><ele>924.0</ele><time>2026-04-29T07:39:17.943Z</time></trkpt><trkpt lat="39.83068364780674" lon="9.462782744730214"><ele>921.25</ele><time>2026-04-29T07:39:19.943Z</time></trkpt><trkpt lat="39.83079385058742" lon="9.463002775029775"><ele>918.5</ele><time>2026-04-29T07:39:20.943Z</time></trkpt><trkpt lat="39.83084061272277" lon="9.463076224627173"><ele>915.75</ele><time>2026-04-29T07:39:21.943Z</time></trkpt><trkpt lat="39.83093301478554" lon="9.463169044563953"><ele>913.0</ele><time>2026-04-29T07:39:23.943Z</time></trkpt><trkpt lat="39.83100920361438" lon="9.463199438260368"><ele>916.9999999999999</ele><time>2026-04-29T07:39:24.943Z</time></trkpt><trkpt lat="39.83108147971806" lon="9.463226895622034"><ele>921.0</ele><time>2026-04-29T07:39:25.943Z</time></trkpt><trkpt lat="39.831138969395866" lon="9.46326219095805"><ele>925.0</ele><time>2026-04-29T07:39:26.943Z</time></trkpt><trkpt lat="39.83118592880075" lon="9.463376347747396"><ele>929.0</ele><time>2026-04-29T07:39:28.943Z</time></trkpt><trkpt lat="39.83120877059786" lon="9.463539607209412"><ele>932.9999999999999</ele><time>2026-04-29T07:39:30.943Z</time></trkpt><trkpt lat="39.83121466182188" lon="9.463627933562755"><ele>937.0</ele><time>2026-04-29T07:39:31.943Z</time></trkpt><trkpt lat="39.83122174980701" lon="9.46371054081335"><ele>935.3333333333333</ele><time>2026-04-29T07:39:32.943Z</time></trkpt><trkpt lat="39.83122943836505" lon="9.463794539073087"><ele>933.6666666666666</ele><time>2026-04-29T07:39:33.943Z</time></trkpt><trkpt lat="39.83124100016885" lon="9.463883377507468"><ele>932.0</ele><time>2026-04-29T07:39:34.943Z</time></trkpt><trkpt lat="39.831228985877246" lon="9.464023379935417"><ele>930.3333333333333</ele><time>2026-04-29T07:39:36.943Z</time></trkpt><trkpt lat="39.83122439689456" lon="9.4641999888786"><ele>928.6666666666666</ele><time>2026-04-29T07:39:38.943Z</time></trkpt><trkpt lat="39.83122572786611" lon="9.46428886974002"><ele>927.0</ele><time>2026-04-29T07:39:39.943Z</time></trkpt><trkpt lat="39.83122873520374" lon="9.464382087197487"><ele>927.0</ele><time>2026-04-29T07:39:40.943Z</time></trkpt><trkpt lat="39.831254877416654" lon="9.46446670251916"><ele>927.0</ele><time>2026-04-29T07:39:41.943Z</time></trkpt><trkpt lat="39.831293221773144" lon="9.464554103011404"><ele>927.0</ele><time>2026-04-29T07:39:42.943Z</time></trkpt><trkpt lat="39.83137401757236" lon="9.464650010348441"><ele>927.0</ele><time>2026-04-29T07:39:43.943Z</time></trkpt><trkpt lat="39.83145263698187" lon="9.46474841830167"><ele>927.0</ele><time>2026-04-29T07:39:44.943Z</time></trkpt><trkpt lat="39.8315006947948" lon="9.464863124489582"><ele>928.8</ele><time>2026-04-29T07:39:45.942Z</time></trkpt><trkpt lat="39.83156901555167" lon="9.464959742558664"><ele>930.6</ele><time>2026-04-29T07:39:46.942Z</time></trkpt><trkpt lat="39.83165232346078" lon="9.465015887020561"><ele>932.3999999999999</ele><time>2026-04-29T07:39:47.942Z</time></trkpt><trkpt lat="39.831728128236286" lon="9.46508796869648"><ele>934.1999999999999</ele><time>2026-04-29T07:39:48.942Z</time></trkpt><trkpt lat="39.83180994680481" lon="9.465139386274517"><ele>936.0</ele><time>2026-04-29T07:39:49.942Z</time></trkpt><trkpt lat="39.83188855654931" lon="9.465208904706262"><ele>936.0</ele><time>2026-04-29T07:39:50.942Z</time></trkpt><trkpt lat="39.831966546064955" lon="9.465235922408873"><ele>936.0</ele><time>2026-04-29T07:39:51.942Z</time></trkpt><trkpt lat="39.83202469954143" lon="9.465299403234951"><ele>936.0</ele><time>2026-04-29T07:39:52.942Z</time></trkpt><trkpt lat="39.83208361395989" lon="9.465379972352121"><ele>936.0</ele><time>2026-04-29T07:39:53.942Z</time></trkpt><trkpt lat="39.83213639347426" lon="9.46548285575725"><ele>936.0</ele><time>2026-04-29T07:39:54.942Z</time></trkpt><trkpt lat="39.83215919171391" lon="9.465576795066017"><ele>936.0</ele><time>2026-04-29T07:39:55.942Z</time></trkpt><trkpt lat="39.832200815694534" lon="9.465675281287885"><ele>933.5999999999999</ele><time>2026-04-29T07:39:56.942Z</time></trkpt><trkpt lat="39.832245093939264" lon="9.465770122785012"><ele>931.1999999999999</ele><time>2026-04-29T07:39:57.942Z</time></trkpt><trkpt lat="39.83227617927995" lon="9.465842012814335"><ele>928.8000000000001</ele><time>2026-04-29T07:39:58.942Z</time></trkpt><trkpt lat="39.83226824782089" lon="9.465959791907583"><ele>926.4000000000001</ele><time>2026-04-29T07:40:00.942Z</time></trkpt><trkpt lat="39.83217759764682" lon="9.466113585342594"><ele>924.0</ele><time>2026-04-29T07:40:02.942Z</time></trkpt><trkpt lat="39.83213756644233" lon="9.466215524844275"><ele>924.6666666666666</ele><time>2026-04-29T07:40:03.942Z</time></trkpt><trkpt lat="39.83209623198802" lon="9.466317419289451"><ele>925.3333333333333</ele><time>2026-04-29T07:40:04.941Z</time></trkpt><trkpt lat="39.83206755972931" lon="9.466399686366087"><ele>926.0</ele><time>2026-04-29T07:40:05.942Z</time></trkpt><trkpt lat="39.83203304614291" lon="9.466492525926894"><ele>926.6666666666666</ele><time>2026-04-29T07:40:06.942Z</time></trkpt><trkpt lat="39.83200606217467" lon="9.466589472875947"><ele>927.3333333333333</ele><time>2026-04-29T07:40:07.942Z</time></trkpt><trkpt lat="39.831974006129194" lon="9.466694042254225"><ele>928.0</ele><time>2026-04-29T07:40:08.941Z</time></trkpt><trkpt lat="39.831932185077214" lon="9.46678592198515"><ele>927.9999999999999</ele><time>2026-04-29T07:40:09.941Z</time></trkpt><trkpt lat="39.83190805357471" lon="9.46688413583977"><ele>928.0</ele><time>2026-04-29T07:40:10.941Z</time></trkpt><trkpt lat="39.831866036718715" lon="9.466972319120911"><ele>928.0</ele><time>2026-04-29T07:40:11.941Z</time></trkpt><trkpt lat="39.8318209492282" lon="9.467058362039715"><ele>928.0</ele><time>2026-04-29T07:40:12.941Z</time></trkpt><trkpt lat="39.83177135740939" lon="9.467160585605587"><ele>927.9999999999999</ele><time>2026-04-29T07:40:13.942Z</time></trkpt><trkpt lat="39.83171480547045" lon="9.467265661958097"><ele>928.0</ele><time>2026-04-29T07:40:14.942Z</time></trkpt><trkpt lat="39.83164773853538" lon="9.467367078510474"><ele>925.2</ele><time>2026-04-29T07:40:15.942Z</time></trkpt><trkpt lat="39.8315689507883" lon="9.467473781767458"><ele>922.4</ele><time>2026-04-29T07:40:16.942Z</time></trkpt><trkpt lat="39.83149043408045" lon="9.467580751826633"><ele>919.6000000000001</ele><time>2026-04-29T07:40:17.942Z</time></trkpt><trkpt lat="39.83142920768479" lon="9.467682331151547"><ele>916.8000000000001</ele><time>2026-04-29T07:40:18.942Z</time></trkpt><trkpt lat="39.8313867790972" lon="9.467767403278096"><ele>914.0</ele><time>2026-04-29T07:40:19.942Z</time></trkpt><trkpt lat="39.83137563043608" lon="9.467889293462463"><ele>914.3333333333334</ele><time>2026-04-29T07:40:21.942Z</time></trkpt><trkpt lat="39.83141696664428" lon="9.468039312339538"><ele>914.6666666666667</ele><time>2026-04-29T07:40:23.942Z</time></trkpt><trkpt lat="39.83145884686596" lon="9.468103798839444"><ele>915.0</ele><time>2026-04-29T07:40:24.942Z</time></trkpt><trkpt lat="39.831511373331146" lon="9.468155340775215"><ele>915.3333333333333</ele><time>2026-04-29T07:40:25.942Z</time></trkpt><trkpt lat="39.83157794471939" lon="9.468207590643472"><ele>915.6666666666666</ele><time>2026-04-29T07:40:26.942Z</time></trkpt><trkpt lat="39.83165401736675" lon="9.468245086775728"><ele>916.0</ele><time>2026-04-29T07:40:27.942Z</time></trkpt><trkpt lat="39.83171850581587" lon="9.46828500405688"><ele>916.0</ele><time>2026-04-29T07:40:28.942Z</time></trkpt><trkpt lat="39.83178595605149" lon="9.468422925006175"><ele>915.9999999999999</ele><time>2026-04-29T07:40:30.942Z</time></trkpt><trkpt lat="39.831776524117906" lon="9.468548623417187"><ele>915.9999999999999</ele><time>2026-04-29T07:40:32.942Z</time></trkpt><trkpt lat="39.831698145330265" lon="9.468660213257529"><ele>916.0</ele><time>2026-04-29T07:40:34.942Z</time></trkpt><trkpt lat="39.831635443131226" lon="9.46869111611685"><ele>916.0</ele><time>2026-04-29T07:40:35.942Z</time></trkpt><trkpt lat="39.83156609390488" lon="9.46871305695381"><ele>915.9999999999999</ele><time>2026-04-29T07:40:36.942Z</time></trkpt><trkpt lat="39.83148511643853" lon="9.468729759929074"><ele>916.0</ele><time>2026-04-29T07:40:37.942Z</time></trkpt><trkpt lat="39.83139533302166" lon="9.468764099417648"><ele>916.0</ele><time>2026-04-29T07:40:38.942Z</time></trkpt><trkpt lat="39.831317190869704" lon="9.468808967227941"><ele>916.0</ele><time>2026-04-29T07:40:39.942Z</time></trkpt><trkpt lat="39.83124191452211" lon="9.468832093693896"><ele>915.9999999999999</ele><time>2026-04-29T07:40:40.942Z</time></trkpt><trkpt lat="39.83117677281639" lon="9.468828825920445"><ele>916.0</ele><time>2026-04-29T07:40:41.942Z</time></trkpt><trkpt lat="39.83110006214126" lon="9.468820290292165"><ele>916.1666666666666</ele><time>2026-04-29T07:40:42.942Z</time></trkpt><trkpt lat="39.83104211807975" lon="9.468778995449435"><ele>916.3333333333333</ele><time>2026-04-29T07:40:43.941Z</time></trkpt><trkpt lat="39.83097033393182" lon="9.468738621854436"><ele>916.5</ele><time>2026-04-29T07:40:44.941Z</time></trkpt><trkpt lat="39.83088833204827" lon="9.468711843707265"><ele>916.6666666666667</ele><time>2026-04-29T07:40:45.941Z</time></trkpt><trkpt lat="39.830804341265" lon="9.468708587797146"><ele>916.8333333333334</ele><time>2026-04-29T07:40:46.941Z</time></trkpt><trkpt lat="39.830739282624315" lon="9.468718938441254"><ele>917.0</ele><time>2026-04-29T07:40:48.941Z</time></trkpt><trkpt lat="39.83073978526926" lon="9.468835174999587"><ele>918.4285714285714</ele><time>2026-04-29T07:40:52.941Z</time></trkpt><trkpt lat="39.83077157620973" lon="9.46891898792837"><ele>919.8571428571429</ele><time>2026-04-29T07:40:54.941Z</time></trkpt><trkpt lat="39.83081534252989" lon="9.468998682883536"><ele>921.2857142857142</ele><time>2026-04-29T07:40:55.941Z</time></trkpt><trkpt lat="39.830858962759415" lon="9.469082438668257"><ele>922.7142857142857</ele><time>2026-04-29T07:40:56.941Z</time></trkpt><trkpt lat="39.83089343983929" lon="9.46915469922868"><ele>924.1428571428571</ele><time>2026-04-29T07:40:57.941Z</time></trkpt><trkpt lat="39.830917854732945" lon="9.469235275370524"><ele>925.5714285714284</ele><time>2026-04-29T07:40:58.941Z</time></trkpt><trkpt lat="39.830942827595884" lon="9.469331994721289"><ele>926.9999999999999</ele><time>2026-04-29T07:40:59.941Z</time></trkpt><trkpt lat="39.83096888205635" lon="9.469434514046629"><ele>926.3333333333334</ele><time>2026-04-29T07:41:00.941Z</time></trkpt><trkpt lat="39.83103242250739" lon="9.469510677141649"><ele>925.6666666666667</ele><time>2026-04-29T07:41:01.941Z</time></trkpt><trkpt lat="39.83108223062285" lon="9.469588241036055"><ele>925.0</ele><time>2026-04-29T07:41:02.941Z</time></trkpt><trkpt lat="39.83111668484685" lon="9.469683158483669"><ele>924.3333333333334</ele><time>2026-04-29T07:41:03.941Z</time></trkpt><trkpt lat="39.8311626879971" lon="9.469747881762755"><ele>923.6666666666667</ele><time>2026-04-29T07:41:04.941Z</time></trkpt><trkpt lat="39.831211087982204" lon="9.469828865438572"><ele>923.0</ele><time>2026-04-29T07:41:05.941Z</time></trkpt><trkpt lat="39.831260828084794" lon="9.469973587848953"><ele>925.4</ele><time>2026-04-29T07:41:07.941Z</time></trkpt><trkpt lat="39.83131084681727" lon="9.470056266286031"><ele>927.8</ele><time>2026-04-29T07:41:08.941Z</time></trkpt><trkpt lat="39.83136263061094" lon="9.470162277557693"><ele>930.2</ele><time>2026-04-29T07:41:09.941Z</time></trkpt><trkpt lat="39.83139623399405" lon="9.470236254767459"><ele>932.6</ele><time>2026-04-29T07:41:10.941Z</time></trkpt><trkpt lat="39.831471615424746" lon="9.470315103126415"><ele>935.0</ele><time>2026-04-29T07:41:12.941Z</time></trkpt><trkpt lat="39.83160025382526" lon="9.470354561931687"><ele>935.0000000000001</ele><time>2026-04-29T07:41:14.941Z</time></trkpt><trkpt lat="39.8316682877642" lon="9.47038971018475"><ele>935.0</ele><time>2026-04-29T07:41:15.941Z</time></trkpt><trkpt lat="39.83172508208608" lon="9.47042557603682"><ele>935.0</ele><time>2026-04-29T07:41:16.941Z</time></trkpt><trkpt lat="39.83178418837753" lon="9.470490452833994"><ele>935.0</ele><time>2026-04-29T07:41:17.941Z</time></trkpt><trkpt lat="39.83180628601163" lon="9.470644799410282"><ele>935.0000000000001</ele><time>2026-04-29T07:41:19.941Z</time></trkpt><trkpt lat="39.83177349848051" lon="9.470726646163827"><ele>935.0</ele><time>2026-04-29T07:41:22.941Z</time></trkpt><trkpt lat="39.83169340117998" lon="9.470702317268927"><ele>937.2</ele><time>2026-04-29T07:41:24.941Z</time></trkpt><trkpt lat="39.83154356249929" lon="9.470683892422466"><ele>939.4</ele><time>2026-04-29T07:41:26.941Z</time></trkpt><trkpt lat="39.831446141815036" lon="9.470684079087215"><ele>941.5999999999999</ele><time>2026-04-29T07:41:27.941Z</time></trkpt><trkpt lat="39.83135598567397" lon="9.470691292629501"><ele>943.8</ele><time>2026-04-29T07:41:28.941Z</time></trkpt><trkpt lat="39.8312900615596" lon="9.470693022742806"><ele>946.0</ele><time>2026-04-29T07:41:29.941Z</time></trkpt><trkpt lat="39.83122494438984" lon="9.47067574133028"><ele>945.9999999999999</ele><time>2026-04-29T07:41:33.941Z</time></trkpt><trkpt lat="39.83112569818011" lon="9.470646707396494"><ele>946.0</ele><time>2026-04-29T07:41:42.941Z</time></trkpt><trkpt lat="39.83104448719436" lon="9.470621935580292"><ele>946.0</ele><time>2026-04-29T07:41:44.941Z</time></trkpt><trkpt lat="39.830966265219445" lon="9.470564601091311"><ele>946.0</ele><time>2026-04-29T07:41:46.941Z</time></trkpt><trkpt lat="39.83087721745992" lon="9.47051053375399"><ele>945.9999999999999</ele><time>2026-04-29T07:41:48.941Z</time></trkpt><trkpt lat="39.83081541609781" lon="9.470457748681124"><ele>946.0</ele><time>2026-04-29T07:41:50.941Z</time></trkpt><trkpt lat="39.83073030542855" lon="9.470354145085178"><ele>945.4999999999999</ele><time>2026-04-29T07:41:52.941Z</time></trkpt><trkpt lat="39.83067276353851" lon="9.470301919247001"><ele>945.0</ele><time>2026-04-29T07:41:53.941Z</time></trkpt><trkpt lat="39.83062261076612" lon="9.470243181758528"><ele>944.5</ele><time>2026-04-29T07:41:54.941Z</time></trkpt><trkpt lat="39.83056841208201" lon="9.470191931301363"><ele>944.0</ele><time>2026-04-29T07:41:55.941Z</time></trkpt><trkpt lat="39.83050963187616" lon="9.470144938659347"><ele>943.4999999999999</ele><time>2026-04-29T07:41:56.941Z</time></trkpt><trkpt lat="39.8304181025947" lon="9.470048373761564"><ele>943.0</ele><time>2026-04-29T07:41:58.941Z</time></trkpt><trkpt lat="39.83031704519393" lon="9.469945023713107"><ele>942.9999999999999</ele><time>2026-04-29T07:42:00.941Z</time></trkpt><trkpt lat="39.830258547595726" lon="9.469900208607193"><ele>943.0</ele><time>2026-04-29T07:42:01.941Z</time></trkpt><trkpt lat="39.83019793247778" lon="9.469867323654503"><ele>943.0</ele><time>2026-04-29T07:42:02.941Z</time></trkpt><trkpt lat="39.830098284150424" lon="9.469810443948882"><ele>943.0</ele><time>2026-04-29T07:42:04.941Z</time></trkpt><trkpt lat="39.829985184773676" lon="9.469774860352839"><ele>942.9999999999999</ele><time>2026-04-29T07:42:06.941Z</time></trkpt><trkpt lat="39.82991951097131" lon="9.469767533297679"><ele>943.0</ele><time>2026-04-29T07:42:07.939Z</time></trkpt><trkpt lat="39.82979407117589" lon="9.469789266465341"><ele>944.8</ele><time>2026-04-29T07:42:09.94Z</time></trkpt><trkpt lat="39.82969642364107" lon="9.469842642308405"><ele>946.5999999999999</ele><time>2026-04-29T07:42:11.939Z</time></trkpt><trkpt lat="39.829648089125" lon="9.46989793956641"><ele>948.4000000000001</ele><time>2026-04-29T07:42:12.939Z</time></trkpt><trkpt lat="39.82954849889051" lon="9.470027589898107"><ele>950.2</ele><time>2026-04-29T07:42:14.939Z</time></trkpt><trkpt lat="39.82950116006047" lon="9.470128641988538"><ele>952.0</ele><time>2026-04-29T07:42:15.939Z</time></trkpt><trkpt lat="39.82945925183986" lon="9.470229961485174"><ele>951.9999999999999</ele><time>2026-04-29T07:42:16.939Z</time></trkpt><trkpt lat="39.82943277773112" lon="9.470346406080496"><ele>952.0</ele><time>2026-04-29T07:42:17.939Z</time></trkpt><trkpt lat="39.82940690717781" lon="9.47048054311931"><ele>952.0</ele><time>2026-04-29T07:42:18.939Z</time></trkpt><trkpt lat="39.829388590310536" lon="9.470592696065285"><ele>952.0</ele><time>2026-04-29T07:42:19.939Z</time></trkpt><trkpt lat="39.82937828410514" lon="9.470704466440647"><ele>951.9999999999999</ele><time>2026-04-29T07:42:20.939Z</time></trkpt><trkpt lat="39.82938206612034" lon="9.470793587861346"><ele>952.0</ele><time>2026-04-29T07:42:21.939Z</time></trkpt><trkpt lat="39.82940921315229" lon="9.470883068027945"><ele>953.25</ele><time>2026-04-29T07:42:22.939Z</time></trkpt><trkpt lat="39.829453998200826" lon="9.471001076277842"><ele>954.5</ele><time>2026-04-29T07:42:23.939Z</time></trkpt><trkpt lat="39.82951065849279" lon="9.471125263334057"><ele>955.75</ele><time>2026-04-29T07:42:24.939Z</time></trkpt><trkpt lat="39.82957870341238" lon="9.471286992886338"><ele>957.0</ele><time>2026-04-29T07:42:25.939Z</time></trkpt><trkpt lat="39.82963951635004" lon="9.471453041743683"><ele>957.2</ele><time>2026-04-29T07:42:26.939Z</time></trkpt><trkpt lat="39.82969842631726" lon="9.471599358257679"><ele>957.4000000000001</ele><time>2026-04-29T07:42:27.939Z</time></trkpt><trkpt lat="39.82974466464457" lon="9.471708292173467"><ele>957.5999999999999</ele><time>2026-04-29T07:42:28.939Z</time></trkpt><trkpt lat="39.82977333884289" lon="9.471805459853003"><ele>957.8</ele><time>2026-04-29T07:42:29.939Z</time></trkpt><trkpt lat="39.82978848613643" lon="9.47194431576677"><ele>958.0</ele><time>2026-04-29T07:42:31.939Z</time></trkpt><trkpt lat="39.82976892075322" lon="9.472029158579465"><ele>958.3333333333333</ele><time>2026-04-29T07:42:32.939Z</time></trkpt><trkpt lat="39.82973841321907" lon="9.472113864808957"><ele>958.6666666666666</ele><time>2026-04-29T07:42:33.939Z</time></trkpt><trkpt lat="39.82971201886252" lon="9.472203566525337"><ele>959.0</ele><time>2026-04-29T07:42:34.939Z</time></trkpt><trkpt lat="39.82970978229893" lon="9.47229680641492"><ele>959.3333333333333</ele><time>2026-04-29T07:42:35.939Z</time></trkpt><trkpt lat="39.82971385236375" lon="9.47238206104129"><ele>959.6666666666666</ele><time>2026-04-29T07:42:36.939Z</time></trkpt><trkpt lat="39.829746515953616" lon="9.472480239716429"><ele>960.0</ele><time>2026-04-29T07:42:37.939Z</time></trkpt><trkpt lat="39.829780454865904" lon="9.472611835949998"><ele>960.0</ele><time>2026-04-29T07:42:38.939Z</time></trkpt><trkpt lat="39.82979936149053" lon="9.472759528044513"><ele>960.0</ele><time>2026-04-29T07:42:39.939Z</time></trkpt><trkpt lat="39.829826546765545" lon="9.47286259286617"><ele>960.0</ele><time>2026-04-29T07:42:40.939Z</time></trkpt><trkpt lat="39.829865471476566" lon="9.472952252252474"><ele>960.0</ele><time>2026-04-29T07:42:41.939Z</time></trkpt><trkpt lat="39.82992088495506" lon="9.47305095818947"><ele>960.0</ele><time>2026-04-29T07:42:42.939Z</time></trkpt><trkpt lat="39.829979335284385" lon="9.473157321097275"><ele>960.8</ele><time>2026-04-29T07:42:43.938Z</time></trkpt><trkpt lat="39.830047372245716" lon="9.47326635450168"><ele>961.6</ele><time>2026-04-29T07:42:44.938Z</time></trkpt><trkpt lat="39.83009956283706" lon="9.473402243434553"><ele>962.4000000000001</ele><time>2026-04-29T07:42:45.938Z</time></trkpt><trkpt lat="39.83014615205393" lon="9.473532207687231"><ele>963.2</ele><time>2026-04-29T07:42:46.938Z</time></trkpt><trkpt lat="39.830190244808904" lon="9.473647571745927"><ele>964.0</ele><time>2026-04-29T07:42:47.938Z</time></trkpt><trkpt lat="39.83024083526554" lon="9.473750605654658"><ele>961.6</ele><time>2026-04-29T07:42:48.938Z</time></trkpt><trkpt lat="39.83030797798416" lon="9.473862225801438"><ele>959.2</ele><time>2026-04-29T07:42:49.938Z</time></trkpt><trkpt lat="39.830378029052945" lon="9.473952610057422"><ele>956.8000000000001</ele><time>2026-04-29T07:42:50.938Z</time></trkpt><trkpt lat="39.830456178823745" lon="9.474044640746689"><ele>954.4000000000001</ele><time>2026-04-29T07:42:51.938Z</time></trkpt><trkpt lat="39.830514179019744" lon="9.4741418685195"><ele>952.0</ele><time>2026-04-29T07:42:52.938Z</time></trkpt><trkpt lat="39.830565905177544" lon="9.474278280647784"><ele>951.9999999999999</ele><time>2026-04-29T07:42:54.938Z</time></trkpt><trkpt lat="39.83054347882735" lon="9.474366801400068"><ele>952.0</ele><time>2026-04-29T07:42:56.938Z</time></trkpt><trkpt lat="39.830531384816766" lon="9.474455085411558"><ele>952.0</ele><time>2026-04-29T07:42:57.938Z</time></trkpt><trkpt lat="39.83049539528138" lon="9.4745407955184"><ele>952.0</ele><time>2026-04-29T07:42:58.938Z</time></trkpt><trkpt lat="39.83045077769468" lon="9.474602527913211"><ele>951.9999999999999</ele><time>2026-04-29T07:42:59.938Z</time></trkpt><trkpt lat="39.83041150512167" lon="9.474715015681802"><ele>952.0</ele><time>2026-04-29T07:43:01.938Z</time></trkpt><trkpt lat="39.83041945901953" lon="9.474829807260553"><ele>951.8</ele><time>2026-04-29T07:43:03.938Z</time></trkpt><trkpt lat="39.83049001567446" lon="9.47495599877588"><ele>951.6</ele><time>2026-04-29T07:43:05.938Z</time></trkpt><trkpt lat="39.830602573865" lon="9.475067216262499"><ele>951.3999999999999</ele><time>2026-04-29T07:43:07.938Z</time></trkpt><trkpt lat="39.83066474233861" lon="9.475118317212791"><ele>951.1999999999999</ele><time>2026-04-29T07:43:08.938Z</time></trkpt><trkpt lat="39.830726944997146" lon="9.475168405087146"><ele>951.0</ele><time>2026-04-29T07:43:09.938Z</time></trkpt><trkpt lat="39.83079146644806" lon="9.4752226155304"><ele>951.0</ele><time>2026-04-29T07:43:10.938Z</time></trkpt><trkpt lat="39.830861656501085" lon="9.475265612939019"><ele>951.0</ele><time>2026-04-29T07:43:11.938Z</time></trkpt><trkpt lat="39.83092141261505" lon="9.475318186585318"><ele>951.0</ele><time>2026-04-29T07:43:12.938Z</time></trkpt><trkpt lat="39.83098968987589" lon="9.475369896086535"><ele>951.0</ele><time>2026-04-29T07:43:13.938Z</time></trkpt><trkpt lat="39.831051754055125" lon="9.475423034830486"><ele>951.0</ele><time>2026-04-29T07:43:14.938Z</time></trkpt><trkpt lat="39.83115175412806" lon="9.47548342903381"><ele>951.0</ele><time>2026-04-29T07:43:16.938Z</time></trkpt><trkpt lat="39.83121668495131" lon="9.475473239757052"><ele>951.8333333333334</ele><time>2026-04-29T07:43:17.938Z</time></trkpt><trkpt lat="39.83128162567563" lon="9.475448827302303"><ele>952.6666666666667</ele><time>2026-04-29T07:43:18.938Z</time></trkpt><trkpt lat="39.8313503330083" lon="9.475395228605526"><ele>953.5</ele><time>2026-04-29T07:43:19.938Z</time></trkpt><trkpt lat="39.831462376916974" lon="9.475345704064337"><ele>954.3333333333334</ele><time>2026-04-29T07:43:21.938Z</time></trkpt><trkpt lat="39.83156859810939" lon="9.475378422640377"><ele>955.1666666666667</ele><time>2026-04-29T07:43:23.938Z</time></trkpt><trkpt lat="39.831628416911" lon="9.475407147093197"><ele>956.0</ele><time>2026-04-29T07:43:24.938Z</time></trkpt><trkpt lat="39.83171404693172" lon="9.475446966576751"><ele>956.0000000000001</ele><time>2026-04-29T07:43:25.938Z</time></trkpt><trkpt lat="39.83179815603934" lon="9.4754954291221"><ele>956.0</ele><time>2026-04-29T07:43:26.938Z</time></trkpt><trkpt lat="39.83188020791256" lon="9.475527909781812"><ele>956.0</ele><time>2026-04-29T07:43:27.938Z</time></trkpt><trkpt lat="39.8319555267983" lon="9.475554636852692"><ele>956.0</ele><time>2026-04-29T07:43:28.938Z</time></trkpt><trkpt lat="39.83202225557138" lon="9.475556668404714"><ele>956.0000000000001</ele><time>2026-04-29T07:43:29.938Z</time></trkpt><trkpt lat="39.83208764276399" lon="9.47551800797098"><ele>956.0</ele><time>2026-04-29T07:43:31.938Z</time></trkpt><trkpt lat="39.83213957989989" lon="9.475441545312156"><ele>957.857142857143</ele><time>2026-04-29T07:43:33.938Z</time></trkpt><trkpt lat="39.83216678841854" lon="9.47536269059924"><ele>959.7142857142858</ele><time>2026-04-29T07:43:34.938Z</time></trkpt><trkpt lat="39.83219777882448" lon="9.475272875504192"><ele>961.5714285714286</ele><time>2026-04-29T07:43:35.938Z</time></trkpt><trkpt lat="39.832209633685046" lon="9.475186719569427"><ele>963.4285714285714</ele><time>2026-04-29T07:43:36.938Z</time></trkpt><trkpt lat="39.83224196054184" lon="9.47511148328472"><ele>965.2857142857142</ele><time>2026-04-29T07:43:37.938Z</time></trkpt><trkpt lat="39.83227495917017" lon="9.475025338011214"><ele>967.142857142857</ele><time>2026-04-29T07:43:38.938Z</time></trkpt><trkpt lat="39.832315779976014" lon="9.474924686343586"><ele>968.9999999999999</ele><time>2026-04-29T07:43:39.938Z</time></trkpt><trkpt lat="39.83236610835194" lon="9.474828040434911"><ele>969.0</ele><time>2026-04-29T07:43:40.938Z</time></trkpt><trkpt lat="39.83241598250848" lon="9.474734342120845"><ele>969.0000000000001</ele><time>2026-04-29T07:43:41.938Z</time></trkpt><trkpt lat="39.83247229813434" lon="9.474630121473945"><ele>969.0000000000001</ele><time>2026-04-29T07:43:42.938Z</time></trkpt><trkpt lat="39.83252324534456" lon="9.474534010966423"><ele>969.0</ele><time>2026-04-29T07:43:43.938Z</time></trkpt><trkpt lat="39.832558901184434" lon="9.474424730375029"><ele>969.0</ele><time>2026-04-29T07:43:44.938Z</time></trkpt><trkpt lat="39.832611569995805" lon="9.474330900310648"><ele>970.1666666666666</ele><time>2026-04-29T07:43:45.938Z</time></trkpt><trkpt lat="39.83264607921463" lon="9.474220651799541"><ele>971.3333333333333</ele><time>2026-04-29T07:43:46.938Z</time></trkpt><trkpt lat="39.832696726892024" lon="9.474111295218172"><ele>972.5</ele><time>2026-04-29T07:43:47.938Z</time></trkpt><trkpt lat="39.83276018627011" lon="9.474018150090814"><ele>973.6666666666666</ele><time>2026-04-29T07:43:48.938Z</time></trkpt><trkpt lat="39.8328111894478" lon="9.473924843720445"><ele>974.8333333333333</ele><time>2026-04-29T07:43:49.938Z</time></trkpt><trkpt lat="39.832860910343555" lon="9.473855806273786"><ele>976.0</ele><time>2026-04-29T07:43:50.938Z</time></trkpt><trkpt lat="39.832924815252206" lon="9.473810302165615"><ele>973.5999999999999</ele><time>2026-04-29T07:43:51.938Z</time></trkpt><trkpt lat="39.8329975588677" lon="9.473769365727819"><ele>971.1999999999999</ele><time>2026-04-29T07:43:52.938Z</time></trkpt><trkpt lat="39.8330929404501" lon="9.473757152144746"><ele>968.8000000000001</ele><time>2026-04-29T07:43:53.938Z</time></trkpt><trkpt lat="39.83318620960465" lon="9.473708297498185"><ele>966.4000000000001</ele><time>2026-04-29T07:43:54.938Z</time></trkpt><trkpt lat="39.83327583370881" lon="9.473696807232136"><ele>964.0</ele><time>2026-04-29T07:43:55.938Z</time></trkpt><trkpt lat="39.83336049075764" lon="9.473701392295128"><ele>964.0</ele><time>2026-04-29T07:43:56.938Z</time></trkpt><trkpt lat="39.83346051501068" lon="9.473748407154275"><ele>964.0000000000001</ele><time>2026-04-29T07:43:57.938Z</time></trkpt><trkpt lat="39.83355320134737" lon="9.473780043366967"><ele>964.0000000000001</ele><time>2026-04-29T07:43:58.938Z</time></trkpt><trkpt lat="39.83365317120573" lon="9.47379292533588"><ele>964.0</ele><time>2026-04-29T07:43:59.938Z</time></trkpt><trkpt lat="39.83374395473619" lon="9.473800582021985"><ele>964.0</ele><time>2026-04-29T07:44:00.938Z</time></trkpt><trkpt lat="39.83382334922811" lon="9.473809318834107"><ele>965.6</ele><time>2026-04-29T07:44:01.938Z</time></trkpt><trkpt lat="39.83390934124276" lon="9.473798730920139"><ele>967.2</ele><time>2026-04-29T07:44:02.938Z</time></trkpt><trkpt lat="39.83399466713578" lon="9.473807882061612"><ele>968.8000000000001</ele><time>2026-04-29T07:44:03.938Z</time></trkpt><trkpt lat="39.83409122929593" lon="9.473822686703667"><ele>970.4000000000001</ele><time>2026-04-29T07:44:04.938Z</time></trkpt><trkpt lat="39.83421103356748" lon="9.473847636173392"><ele>972.0</ele><time>2026-04-29T07:44:05.938Z</time></trkpt><trkpt lat="39.83430963317071" lon="9.473886691942234"><ele>972.0</ele><time>2026-04-29T07:44:06.938Z</time></trkpt><trkpt lat="39.834412243514954" lon="9.473901166718411"><ele>972.0</ele><time>2026-04-29T07:44:07.938Z</time></trkpt><trkpt lat="39.834510804824966" lon="9.47390764586008"><ele>972.0</ele><time>2026-04-29T07:44:08.938Z</time></trkpt><trkpt lat="39.83458375880081" lon="9.473907139787304"><ele>972.0</ele><time>2026-04-29T07:44:09.938Z</time></trkpt><trkpt lat="39.83465941320231" lon="9.473894584869052"><ele>972.0</ele><time>2026-04-29T07:44:10.938Z</time></trkpt><trkpt lat="39.83473338257391" lon="9.47386985688247"><ele>972.0</ele><time>2026-04-29T07:44:11.938Z</time></trkpt><trkpt lat="39.83483341148188" lon="9.473819623759141"><ele>970.8</ele><time>2026-04-29T07:44:12.938Z</time></trkpt><trkpt lat="39.834914151862925" lon="9.47374609116219"><ele>969.6</ele><time>2026-04-29T07:44:13.937Z</time></trkpt><trkpt lat="39.834989328428094" lon="9.4736413945842"><ele>968.3999999999999</ele><time>2026-04-29T07:44:14.937Z</time></trkpt><trkpt lat="39.83506284168577" lon="9.473538481037949"><ele>967.1999999999999</ele><time>2026-04-29T07:44:15.937Z</time></trkpt><trkpt lat="39.83511727213275" lon="9.473436233991908"><ele>966.0</ele><time>2026-04-29T07:44:16.938Z</time></trkpt><trkpt lat="39.83517141082047" lon="9.473287493145456"><ele>967.5999999999999</ele><time>2026-04-29T07:44:17.937Z</time></trkpt><trkpt lat="39.83520424898825" lon="9.473158649512941"><ele>969.1999999999999</ele><time>2026-04-29T07:44:18.937Z</time></trkpt><trkpt lat="39.83523026157195" lon="9.473034660583625"><ele>970.8000000000001</ele><time>2026-04-29T07:44:19.937Z</time></trkpt><trkpt lat="39.83524246121849" lon="9.472929033544007"><ele>972.4000000000001</ele><time>2026-04-29T07:44:20.937Z</time></trkpt><trkpt lat="39.8352645452204" lon="9.472808134757965"><ele>974.0</ele><time>2026-04-29T07:44:21.937Z</time></trkpt><trkpt lat="39.835291888795666" lon="9.472683090817926"><ele>974.0</ele><time>2026-04-29T07:44:22.937Z</time></trkpt><trkpt lat="39.83533609072765" lon="9.472574227006563"><ele>974.0000000000001</ele><time>2026-04-29T07:44:23.937Z</time></trkpt><trkpt lat="39.83539376537597" lon="9.47247347168524"><ele>974.0000000000001</ele><time>2026-04-29T07:44:24.937Z</time></trkpt><trkpt lat="39.83547007140865" lon="9.472383406221175"><ele>974.0</ele><time>2026-04-29T07:44:25.937Z</time></trkpt><trkpt lat="39.83552875673396" lon="9.472313424232851"><ele>974.0</ele><time>2026-04-29T07:44:26.937Z</time></trkpt><trkpt lat="39.83561671591209" lon="9.472240563273337"><ele>974.0000000000001</ele><time>2026-04-29T07:44:28.937Z</time></trkpt><trkpt lat="39.835715849156784" lon="9.472230230333778"><ele>974.0</ele><time>2026-04-29T07:44:30.937Z</time></trkpt><trkpt lat="39.83578062729844" lon="9.472248898022803"><ele>974.0</ele><time>2026-04-29T07:44:31.937Z</time></trkpt><trkpt lat="39.83584792154423" lon="9.47228356961816"><ele>974.0</ele><time>2026-04-29T07:44:32.937Z</time></trkpt><trkpt lat="39.83592009414157" lon="9.472320225223442"><ele>974.0000000000001</ele><time>2026-04-29T07:44:33.937Z</time></trkpt><trkpt lat="39.83600883779536" lon="9.472340343265108"><ele>974.0</ele><time>2026-04-29T07:44:34.937Z</time></trkpt><trkpt lat="39.83608532961093" lon="9.472364890844862"><ele>974.8333333333334</ele><time>2026-04-29T07:44:35.937Z</time></trkpt><trkpt lat="39.83616517733507" lon="9.472399651448198"><ele>975.6666666666667</ele><time>2026-04-29T07:44:36.937Z</time></trkpt><trkpt lat="39.83624097981329" lon="9.472425979930714"><ele>976.5</ele><time>2026-04-29T07:44:37.937Z</time></trkpt><trkpt lat="39.83631964424358" lon="9.472454959372996"><ele>977.3333333333333</ele><time>2026-04-29T07:44:38.937Z</time></trkpt><trkpt lat="39.83638648302862" lon="9.472506296529946"><ele>978.1666666666666</ele><time>2026-04-29T07:44:39.937Z</time></trkpt><trkpt lat="39.8364770908215" lon="9.472540337879648"><ele>979.0</ele><time>2026-04-29T07:44:40.937Z</time></trkpt><trkpt lat="39.836569338704294" lon="9.472595090453783"><ele>979.0</ele><time>2026-04-29T07:44:41.937Z</time></trkpt><trkpt lat="39.836634923594836" lon="9.472657632588586"><ele>979.0000000000001</ele><time>2026-04-29T07:44:42.937Z</time></trkpt><trkpt lat="39.83671387466715" lon="9.472713550605498"><ele>979.0000000000001</ele><time>2026-04-29T07:44:43.937Z</time></trkpt><trkpt lat="39.836782119715316" lon="9.472780926802091"><ele>979.0</ele><time>2026-04-29T07:44:44.937Z</time></trkpt><trkpt lat="39.83684931937102" lon="9.47285834442854"><ele>979.0</ele><time>2026-04-29T07:44:45.937Z</time></trkpt><trkpt lat="39.83693526477933" lon="9.472943998628914"><ele>978.8333333333333</ele><time>2026-04-29T07:44:46.937Z</time></trkpt><trkpt lat="39.837019640439884" lon="9.473015487641572"><ele>978.6666666666666</ele><time>2026-04-29T07:44:47.937Z</time></trkpt><trkpt lat="39.83710155581012" lon="9.473074313499968"><ele>978.5</ele><time>2026-04-29T07:44:48.937Z</time></trkpt><trkpt lat="39.83717532293661" lon="9.473124425902112"><ele>978.3333333333333</ele><time>2026-04-29T07:44:49.937Z</time></trkpt><trkpt lat="39.83723969032083" lon="9.473165251321113"><ele>978.1666666666666</ele><time>2026-04-29T07:44:50.937Z</time></trkpt><trkpt lat="39.83730476688635" lon="9.473205151541741"><ele>978.0</ele><time>2026-04-29T07:44:51.937Z</time></trkpt><trkpt lat="39.837354702771044" lon="9.47326578686642"><ele>978.0</ele><time>2026-04-29T07:44:52.937Z</time></trkpt><trkpt lat="39.83739554267004" lon="9.473346633266475"><ele>978.0</ele><time>2026-04-29T07:44:53.937Z</time></trkpt><trkpt lat="39.83744144644472" lon="9.473442043773657"><ele>978.0</ele><time>2026-04-29T07:44:54.937Z</time></trkpt><trkpt lat="39.837485693696955" lon="9.473537161667227"><ele>978.0</ele><time>2026-04-29T07:44:55.937Z</time></trkpt><trkpt lat="39.837534834316024" lon="9.47362993106166"><ele>978.0</ele><time>2026-04-29T07:44:56.937Z</time></trkpt><trkpt lat="39.837581406820725" lon="9.473718713378393"><ele>978.0</ele><time>2026-04-29T07:44:57.937Z</time></trkpt><trkpt lat="39.837630211855206" lon="9.473810463001694"><ele>976.3333333333334</ele><time>2026-04-29T07:44:58.937Z</time></trkpt><trkpt lat="39.83767241025831" lon="9.473893148132092"><ele>974.6666666666667</ele><time>2026-04-29T07:44:59.937Z</time></trkpt><trkpt lat="39.837706324964174" lon="9.473988755656928"><ele>973.0</ele><time>2026-04-29T07:45:01.937Z</time></trkpt><trkpt lat="39.83778824601355" lon="9.47401299079965"><ele>971.3333333333334</ele><time>2026-04-29T07:45:03.937Z</time></trkpt><trkpt lat="39.8378223127717" lon="9.473908668050145"><ele>969.6666666666667</ele><time>2026-04-29T07:45:04.937Z</time></trkpt><trkpt lat="39.837789612500416" lon="9.47383654539172"><ele>968.0</ele><time>2026-04-29T07:45:05.937Z</time></trkpt><trkpt lat="39.83776575167849" lon="9.473696424370882"><ele>967.0000000000001</ele><time>2026-04-29T07:45:08.937Z</time></trkpt><trkpt lat="39.837757677506694" lon="9.473549078339603"><ele>966.0</ele><time>2026-04-29T07:45:10.937Z</time></trkpt><trkpt lat="39.837760028131584" lon="9.473460728555306"><ele>965.0</ele><time>2026-04-29T07:45:11.937Z</time></trkpt><trkpt lat="39.837782584238575" lon="9.473366445681838"><ele>964.0</ele><time>2026-04-29T07:45:12.937Z</time></trkpt><trkpt lat="39.8378009083433" lon="9.473275845074781"><ele>963.0000000000001</ele><time>2026-04-29T07:45:13.937Z</time></trkpt><trkpt lat="39.83782750025304" lon="9.473173921591227"><ele>962.0</ele><time>2026-04-29T07:45:15.937Z</time></trkpt><trkpt lat="39.83787075438334" lon="9.473110710010738"><ele>962.0000000000001</ele><time>2026-04-29T07:45:17.937Z</time></trkpt><trkpt lat="39.837936226973234" lon="9.47312967818072"><ele>962.0</ele><time>2026-04-29T07:45:19.937Z</time></trkpt><trkpt lat="39.83799351601983" lon="9.473215385293893"><ele>962.0</ele><time>2026-04-29T07:45:21.937Z</time></trkpt><trkpt lat="39.83798498799404" lon="9.473301710357399"><ele>962.0</ele><time>2026-04-29T07:45:22.937Z</time></trkpt><trkpt lat="39.83802325982555" lon="9.473445875236457"><ele>962.0000000000001</ele><time>2026-04-29T07:45:24.937Z</time></trkpt><trkpt lat="39.83808108967999" lon="9.473568366548289"><ele>962.0</ele><time>2026-04-29T07:45:26.937Z</time></trkpt><trkpt lat="39.838153021118124" lon="9.473635322549454"><ele>962.0</ele><time>2026-04-29T07:45:27.937Z</time></trkpt><trkpt lat="39.83820609541312" lon="9.473707168708128"><ele>962.0</ele><time>2026-04-29T07:45:28.937Z</time></trkpt><trkpt lat="39.83826240468327" lon="9.473754132042398"><ele>962.0</ele><time>2026-04-29T07:45:30.937Z</time></trkpt><trkpt lat="39.838360823224335" lon="9.473762130663994"><ele>962.0</ele><time>2026-04-29T07:45:32.936Z</time></trkpt><trkpt lat="39.838381965924064" lon="9.473604777214849"><ele>962.0</ele><time>2026-04-29T07:45:34.936Z</time></trkpt><trkpt lat="39.838336042110534" lon="9.473504627449653"><ele>962.0</ele><time>2026-04-29T07:45:35.936Z</time></trkpt><trkpt lat="39.838289520079286" lon="9.47334406728494"><ele>962.0</ele><time>2026-04-29T07:45:37.936Z</time></trkpt><trkpt lat="39.83826734403356" lon="9.473262375809185"><ele>962.0</ele><time>2026-04-29T07:45:38.936Z</time></trkpt><trkpt lat="39.83834997729248" lon="9.47326835630916"><ele>962.0</ele><time>2026-04-29T07:45:43.936Z</time></trkpt><trkpt lat="39.838372687366096" lon="9.473373193262644"><ele>962.0</ele><time>2026-04-29T07:45:44.936Z</time></trkpt><trkpt lat="39.83848245677131" lon="9.473464175979451"><ele>959.0</ele><time>2026-04-29T07:45:46.936Z</time></trkpt><trkpt lat="39.838540066993055" lon="9.473502510584392"><ele>956.0</ele><time>2026-04-29T07:45:47.936Z</time></trkpt><trkpt lat="39.83860425260484" lon="9.473559396249353"><ele>953.0</ele><time>2026-04-29T07:45:48.936Z</time></trkpt><trkpt lat="39.83868628540223" lon="9.473619069798614"><ele>950.0</ele><time>2026-04-29T07:45:50.936Z</time></trkpt><trkpt lat="39.83877084025562" lon="9.47356081420101"><ele>947.0</ele><time>2026-04-29T07:45:53.936Z</time></trkpt><trkpt lat="39.83872487359234" lon="9.4733863103093"><ele>947.0000000000001</ele><time>2026-04-29T07:45:55.936Z</time></trkpt><trkpt lat="39.8387009192901" lon="9.473298092633833"><ele>947.0</ele><time>2026-04-29T07:45:56.936Z</time></trkpt><trkpt lat="39.838687872561756" lon="9.473182080813212"><ele>947.0</ele><time>2026-04-29T07:45:58.936Z</time></trkpt><trkpt lat="39.83875047371626" lon="9.473132251631482"><ele>947.0</ele><time>2026-04-29T07:46:01.936Z</time></trkpt><trkpt lat="39.83878676623994" lon="9.473201876033926"><ele>947.0000000000001</ele><time>2026-04-29T07:46:02.936Z</time></trkpt><trkpt lat="39.83885034825552" lon="9.473311238462609"><ele>947.0</ele><time>2026-04-29T07:46:04.936Z</time></trkpt><trkpt lat="39.83891580893395" lon="9.473393364142499"><ele>947.0000000000001</ele><time>2026-04-29T07:46:05.936Z</time></trkpt><trkpt lat="39.83898592867215" lon="9.473460846325258"><ele>947.0</ele><time>2026-04-29T07:46:06.936Z</time></trkpt><trkpt lat="39.83905633448803" lon="9.473511774867244"><ele>947.0</ele><time>2026-04-29T07:46:07.936Z</time></trkpt><trkpt lat="39.83912611208409" lon="9.473548965777631"><ele>947.0</ele><time>2026-04-29T07:46:08.936Z</time></trkpt><trkpt lat="39.839189282865" lon="9.473584422251324"><ele>947.0000000000001</ele><time>2026-04-29T07:46:09.936Z</time></trkpt><trkpt lat="39.83926488677855" lon="9.47362818245682"><ele>947.0</ele><time>2026-04-29T07:46:11.936Z</time></trkpt><trkpt lat="39.83934105742391" lon="9.473632530081483"><ele>947.0</ele><time>2026-04-29T07:46:13.936Z</time></trkpt><trkpt lat="39.83937635846183" lon="9.473556782150897"><ele>947.0</ele><time>2026-04-29T07:46:14.936Z</time></trkpt><trkpt lat="39.8393254656962" lon="9.473381894769407"><ele>947.0</ele><time>2026-04-29T07:46:16.936Z</time></trkpt><trkpt lat="39.839287941606756" lon="9.473245765737445"><ele>947.0</ele><time>2026-04-29T07:46:18.936Z</time></trkpt><trkpt lat="39.839287104640995" lon="9.473154757873347"><ele>947.0</ele><time>2026-04-29T07:46:20.935Z</time></trkpt><trkpt lat="39.839338124226025" lon="9.47302923233529"><ele>944.5000000000001</ele><time>2026-04-29T07:46:23.935Z</time></trkpt><trkpt lat="39.83940482054707" lon="9.472993849201085"><ele>942.0</ele><time>2026-04-29T07:46:24.935Z</time></trkpt><trkpt lat="39.839466646221794" lon="9.472966123496265"><ele>939.5</ele><time>2026-04-29T07:46:25.935Z</time></trkpt><trkpt lat="39.83958784521328" lon="9.472955489612096"><ele>937.0</ele><time>2026-04-29T07:46:27.935Z</time></trkpt><trkpt lat="39.83967545339944" lon="9.472946181736056"><ele>934.5000000000001</ele><time>2026-04-29T07:46:29.935Z</time></trkpt><trkpt lat="39.83974541112515" lon="9.472938298874528"><ele>932.0</ele><time>2026-04-29T07:46:30.935Z</time></trkpt><trkpt lat="39.839814566173295" lon="9.472877167183144"><ele>932.0000000000001</ele><time>2026-04-29T07:46:31.935Z</time></trkpt><trkpt lat="39.8398856967576" lon="9.472810024501074"><ele>932.0</ele><time>2026-04-29T07:46:32.935Z</time></trkpt><trkpt lat="39.83993773539286" lon="9.472739506344123"><ele>932.0</ele><time>2026-04-29T07:46:33.935Z</time></trkpt><trkpt lat="39.84000428016932" lon="9.47265112933758"><ele>932.0</ele><time>2026-04-29T07:46:34.935Z</time></trkpt><trkpt lat="39.84006399832604" lon="9.472554827791742"><ele>932.0000000000001</ele><time>2026-04-29T07:46:35.935Z</time></trkpt><trkpt lat="39.84010991870245" lon="9.472462495859705"><ele>932.0</ele><time>2026-04-29T07:46:36.935Z</time></trkpt><trkpt lat="39.84016809937138" lon="9.472394697944686"><ele>928.8333333333334</ele><time>2026-04-29T07:46:37.935Z</time></trkpt><trkpt lat="39.84020578921936" lon="9.472295766282746"><ele>925.6666666666667</ele><time>2026-04-29T07:46:38.935Z</time></trkpt><trkpt lat="39.84024144253875" lon="9.472223924478886"><ele>922.5</ele><time>2026-04-29T07:46:39.935Z</time></trkpt><trkpt lat="39.84027552797859" lon="9.472079596696755"><ele>919.3333333333333</ele><time>2026-04-29T07:46:41.935Z</time></trkpt><trkpt lat="39.84029009987992" lon="9.471991102990826"><ele>916.1666666666666</ele><time>2026-04-29T07:46:42.935Z</time></trkpt><trkpt lat="39.84029180341632" lon="9.471899846535127"><ele>913.0</ele><time>2026-04-29T07:46:43.935Z</time></trkpt><trkpt lat="39.84029065752214" lon="9.471798542629015"><ele>912.5714285714284</ele><time>2026-04-29T07:46:44.935Z</time></trkpt><trkpt lat="39.84028796712175" lon="9.47170529970195"><ele>912.1428571428571</ele><time>2026-04-29T07:46:45.935Z</time></trkpt><trkpt lat="39.84028289228118" lon="9.471599839351672"><ele>911.7142857142857</ele><time>2026-04-29T07:46:46.935Z</time></trkpt><trkpt lat="39.84027334432619" lon="9.471509534277562"><ele>911.2857142857142</ele><time>2026-04-29T07:46:47.935Z</time></trkpt><trkpt lat="39.84025524170322" lon="9.47142219268387"><ele>910.8571428571429</ele><time>2026-04-29T07:46:48.935Z</time></trkpt><trkpt lat="39.84025442727704" lon="9.471329979197312"><ele>910.4285714285714</ele><time>2026-04-29T07:46:49.935Z</time></trkpt><trkpt lat="39.84023711474201" lon="9.471240568709392"><ele>910.0</ele><time>2026-04-29T07:46:50.935Z</time></trkpt><trkpt lat="39.84021096137114" lon="9.47108548689881"><ele>908.9999999999999</ele><time>2026-04-29T07:46:52.935Z</time></trkpt><trkpt lat="39.84020449858314" lon="9.470954994009276"><ele>908.0</ele><time>2026-04-29T07:46:54.935Z</time></trkpt><trkpt lat="39.84020215154961" lon="9.470871277909303"><ele>907.0</ele><time>2026-04-29T07:46:55.935Z</time></trkpt><trkpt lat="39.84019233821315" lon="9.47077748793176"><ele>906.0</ele><time>2026-04-29T07:46:56.935Z</time></trkpt><trkpt lat="39.84015982921847" lon="9.470696475913993"><ele>904.9999999999999</ele><time>2026-04-29T07:46:57.935Z</time></trkpt><trkpt lat="39.840149641095806" lon="9.470614556170284"><ele>904.0</ele><time>2026-04-29T07:46:58.935Z</time></trkpt><trkpt lat="39.84015122983915" lon="9.470508768348193"><ele>902.9999999999999</ele><time>2026-04-29T07:46:59.935Z</time></trkpt><trkpt lat="39.84015572234983" lon="9.470384619656384"><ele>902.0</ele><time>2026-04-29T07:47:00.935Z</time></trkpt><trkpt lat="39.84015783364338" lon="9.470275248595275"><ele>901.0</ele><time>2026-04-29T07:47:01.935Z</time></trkpt><trkpt lat="39.84016791904118" lon="9.470165479381626"><ele>900.0</ele><time>2026-04-29T07:47:02.935Z</time></trkpt><trkpt lat="39.840176624937754" lon="9.470081703538218"><ele>898.9999999999999</ele><time>2026-04-29T07:47:03.935Z</time></trkpt><trkpt lat="39.84018547248484" lon="9.469982147060925"><ele>898.0</ele><time>2026-04-29T07:47:04.935Z</time></trkpt><trkpt lat="39.84019297938938" lon="9.469876559390324"><ele>898.0</ele><time>2026-04-29T07:47:05.935Z</time></trkpt><trkpt lat="39.84019913518454" lon="9.469762543158494"><ele>898.0</ele><time>2026-04-29T07:47:06.935Z</time></trkpt><trkpt lat="39.840195452997655" lon="9.46963035904288"><ele>898.0</ele><time>2026-04-29T07:47:07.935Z</time></trkpt><trkpt lat="39.84021384041009" lon="9.469510198962093"><ele>898.0</ele><time>2026-04-29T07:47:08.935Z</time></trkpt><trkpt lat="39.840237278330214" lon="9.469403903019774"><ele>898.0</ele><time>2026-04-29T07:47:09.935Z</time></trkpt><trkpt lat="39.84026743176784" lon="9.469303729476513"><ele>897.8</ele><time>2026-04-29T07:47:10.935Z</time></trkpt><trkpt lat="39.84029684894478" lon="9.46921324204334"><ele>897.5999999999999</ele><time>2026-04-29T07:47:11.935Z</time></trkpt><trkpt lat="39.84032435285452" lon="9.469139486249981"><ele>897.4000000000001</ele><time>2026-04-29T07:47:12.935Z</time></trkpt><trkpt lat="39.840372126743674" lon="9.468990508159457"><ele>897.2</ele><time>2026-04-29T07:47:14.935Z</time></trkpt><trkpt lat="39.84036615223184" lon="9.468849276286504"><ele>897.0</ele><time>2026-04-29T07:47:16.935Z</time></trkpt><trkpt lat="39.84042638836806" lon="9.468710021370088"><ele>897.0</ele><time>2026-04-29T07:47:18.935Z</time></trkpt><trkpt lat="39.84046923735389" lon="9.46862143303119"><ele>897.0</ele><time>2026-04-29T07:47:19.935Z</time></trkpt><trkpt lat="39.84052278661169" lon="9.468545981860885"><ele>897.0</ele><time>2026-04-29T07:47:20.935Z</time></trkpt><trkpt lat="39.84055499228068" lon="9.468438875735712"><ele>897.0</ele><time>2026-04-29T07:47:21.934Z</time></trkpt><trkpt lat="39.84060118769703" lon="9.468337848744364"><ele>897.0</ele><time>2026-04-29T07:47:22.934Z</time></trkpt><trkpt lat="39.84064020253974" lon="9.46823316212196"><ele>897.0</ele><time>2026-04-29T07:47:23.934Z</time></trkpt><trkpt lat="39.84067872828432" lon="9.46811240580106"><ele>897.0</ele><time>2026-04-29T07:47:24.934Z</time></trkpt><trkpt lat="39.840715000494136" lon="9.467999972731374"><ele>897.0</ele><time>2026-04-29T07:47:25.934Z</time></trkpt><trkpt lat="39.840750492429464" lon="9.4678743909498"><ele>897.0</ele><time>2026-04-29T07:47:26.934Z</time></trkpt><trkpt lat="39.84080204942192" lon="9.467744367803794"><ele>897.0</ele><time>2026-04-29T07:47:27.934Z</time></trkpt><trkpt lat="39.840868419808636" lon="9.467622274256186"><ele>897.0</ele><time>2026-04-29T07:47:28.934Z</time></trkpt><trkpt lat="39.84092911886157" lon="9.467505359457812"><ele>895.8</ele><time>2026-04-29T07:47:29.934Z</time></trkpt><trkpt lat="39.8409778912377" lon="9.467391991479186"><ele>894.6</ele><time>2026-04-29T07:47:30.934Z</time></trkpt><trkpt lat="39.841009897982474" lon="9.467280837221772"><ele>893.3999999999999</ele><time>2026-04-29T07:47:31.934Z</time></trkpt><trkpt lat="39.841058159925915" lon="9.467173045382406"><ele>892.1999999999999</ele><time>2026-04-29T07:47:32.934Z</time></trkpt><trkpt lat="39.841108589367565" lon="9.467064208567445"><ele>891.0</ele><time>2026-04-29T07:47:33.934Z</time></trkpt><trkpt lat="39.841159371897525" lon="9.466963715178352"><ele>891.0</ele><time>2026-04-29T07:47:34.934Z</time></trkpt><trkpt lat="39.841201840980254" lon="9.466871945990091"><ele>891.0</ele><time>2026-04-29T07:47:35.934Z</time></trkpt><trkpt lat="39.84126177606109" lon="9.466799425394555"><ele>891.0</ele><time>2026-04-29T07:47:36.934Z</time></trkpt><trkpt lat="39.841312932057185" lon="9.466713765751182"><ele>891.0</ele><time>2026-04-29T07:47:37.934Z</time></trkpt><trkpt lat="39.841357447141185" lon="9.466610174901334"><ele>891.0</ele><time>2026-04-29T07:47:38.934Z</time></trkpt><trkpt lat="39.84138718679393" lon="9.466524034614016"><ele>891.0</ele><time>2026-04-29T07:47:39.934Z</time></trkpt><trkpt lat="39.841421263321315" lon="9.466384006238133"><ele>891.0</ele><time>2026-04-29T07:47:41.934Z</time></trkpt><trkpt lat="39.84149246697598" lon="9.466372048417563"><ele>891.0</ele><time>2026-04-29T07:47:44.934Z</time></trkpt><trkpt lat="39.84149722434808" lon="9.466477426693418"><ele>891.0</ele><time>2026-04-29T07:47:46.934Z</time></trkpt><trkpt lat="39.84148465199586" lon="9.46664322367132"><ele>891.0</ele><time>2026-04-29T07:47:48.934Z</time></trkpt><trkpt lat="39.84148589592032" lon="9.466729943735189"><ele>891.0</ele><time>2026-04-29T07:47:49.934Z</time></trkpt><trkpt lat="39.8414915108134" lon="9.466851671690211"><ele>891.0</ele><time>2026-04-29T07:47:51.934Z</time></trkpt><trkpt lat="39.841600679028566" lon="9.466893806220108"><ele>891.0</ele><time>2026-04-29T07:47:53.934Z</time></trkpt><trkpt lat="39.84164728003134" lon="9.46679996411873"><ele>891.0</ele><time>2026-04-29T07:47:55.934Z</time></trkpt><trkpt lat="39.841701226136" lon="9.466674878551673"><ele>891.0</ele><time>2026-04-29T07:47:57.934Z</time></trkpt><trkpt lat="39.841734169587546" lon="9.466602884996409"><ele>891.0</ele><time>2026-04-29T07:47:58.934Z</time></trkpt><trkpt lat="39.84177695258294" lon="9.466501138418009"><ele>891.0</ele><time>2026-04-29T07:48:00.934Z</time></trkpt><trkpt lat="39.841856285302285" lon="9.466473491177316"><ele>891.0</ele><time>2026-04-29T07:48:02.934Z</time></trkpt><trkpt lat="39.84198983784467" lon="9.466519270028861"><ele>889.3333333333334</ele><time>2026-04-29T07:48:04.934Z</time></trkpt><trkpt lat="39.842063235525096" lon="9.46655970244408"><ele>887.6666666666667</ele><time>2026-04-29T07:48:05.934Z</time></trkpt><trkpt lat="39.842142012569155" lon="9.466597313757696"><ele>886.0</ele><time>2026-04-29T07:48:06.934Z</time></trkpt><trkpt lat="39.84221960488848" lon="9.466587047365477"><ele>884.3333333333334</ele><time>2026-04-29T07:48:07.934Z</time></trkpt><trkpt lat="39.842288900158145" lon="9.466600805744878"><ele>882.6666666666667</ele><time>2026-04-29T07:48:08.934Z</time></trkpt><trkpt lat="39.84235838888353" lon="9.466621887603814"><ele>881.0</ele><time>2026-04-29T07:48:09.934Z</time></trkpt><trkpt lat="39.84242875157454" lon="9.466649916770464"><ele>881.0</ele><time>2026-04-29T07:48:10.934Z</time></trkpt><trkpt lat="39.84250093763599" lon="9.466669074332936"><ele>880.9999999999999</ele><time>2026-04-29T07:48:11.934Z</time></trkpt><trkpt lat="39.84256797021102" lon="9.466712462123416"><ele>880.9999999999999</ele><time>2026-04-29T07:48:12.934Z</time></trkpt><trkpt lat="39.84268785950793" lon="9.466737086524688"><ele>881.0</ele><time>2026-04-29T07:48:14.934Z</time></trkpt><trkpt lat="39.84276252142669" lon="9.466728819117769"><ele>881.0</ele><time>2026-04-29T07:48:15.934Z</time></trkpt><trkpt lat="39.8428894479768" lon="9.466655733170485"><ele>881.4</ele><time>2026-04-29T07:48:17.934Z</time></trkpt><trkpt lat="39.843004763109846" lon="9.466595893163086"><ele>881.8</ele><time>2026-04-29T07:48:19.934Z</time></trkpt><trkpt lat="39.84306969923673" lon="9.46657081162131"><ele>882.1999999999999</ele><time>2026-04-29T07:48:20.934Z</time></trkpt><trkpt lat="39.84320677132769" lon="9.466526879372338"><ele>882.5999999999999</ele><time>2026-04-29T07:48:22.934Z</time></trkpt><trkpt lat="39.84327562340932" lon="9.466460993567273"><ele>883.0</ele><time>2026-04-29T07:48:23.934Z</time></trkpt><trkpt lat="39.84331995651617" lon="9.466381961165732"><ele>882.9999999999999</ele><time>2026-04-29T07:48:24.933Z</time></trkpt><trkpt lat="39.843382472045725" lon="9.466331510071612"><ele>883.0</ele><time>2026-04-29T07:48:25.933Z</time></trkpt><trkpt lat="39.84343294919451" lon="9.466271848358264"><ele>883.0</ele><time>2026-04-29T07:48:26.933Z</time></trkpt><trkpt lat="39.84348121626344" lon="9.46617352952933"><ele>883.0</ele><time>2026-04-29T07:48:27.932Z</time></trkpt><trkpt lat="39.84351507079327" lon="9.466057679647488"><ele>882.9999999999999</ele><time>2026-04-29T07:48:28.932Z</time></trkpt><trkpt lat="39.84354272975631" lon="9.465947660780222"><ele>883.0</ele><time>2026-04-29T07:48:29.932Z</time></trkpt><trkpt lat="39.84356743091954" lon="9.465859670807506"><ele>882.8333333333333</ele><time>2026-04-29T07:48:30.933Z</time></trkpt><trkpt lat="39.84359898305323" lon="9.465777342907922"><ele>882.6666666666666</ele><time>2026-04-29T07:48:31.932Z</time></trkpt><trkpt lat="39.84364825873075" lon="9.465681895118822"><ele>882.5</ele><time>2026-04-29T07:48:32.932Z</time></trkpt><trkpt lat="39.843702317787844" lon="9.465583087336883"><ele>882.3333333333333</ele><time>2026-04-29T07:48:33.932Z</time></trkpt><trkpt lat="39.8437528879519" lon="9.465488781920367"><ele>882.1666666666666</ele><time>2026-04-29T07:48:34.933Z</time></trkpt><trkpt lat="39.84379614174612" lon="9.465402072556365"><ele>882.0</ele><time>2026-04-29T07:48:35.933Z</time></trkpt><trkpt lat="39.84383899444817" lon="9.465306157336931"><ele>881.6</ele><time>2026-04-29T07:48:36.932Z</time></trkpt><trkpt lat="39.8438773294856" lon="9.465188413507896"><ele>881.2</ele><time>2026-04-29T07:48:37.932Z</time></trkpt><trkpt lat="39.8439027554882" lon="9.465083658954013"><ele>880.8</ele><time>2026-04-29T07:48:38.932Z</time></trkpt><trkpt lat="39.84393880116799" lon="9.464978134486143"><ele>880.4</ele><time>2026-04-29T07:48:39.932Z</time></trkpt><trkpt lat="39.843988908834646" lon="9.464876179212094"><ele>880.0</ele><time>2026-04-29T07:48:40.932Z</time></trkpt><trkpt lat="39.84404308523209" lon="9.464765977031522"><ele>880.0</ele><time>2026-04-29T07:48:41.932Z</time></trkpt><trkpt lat="39.844091964440416" lon="9.464647260028409"><ele>880.0</ele><time>2026-04-29T07:48:42.932Z</time></trkpt><trkpt lat="39.84415604242165" lon="9.464551674795134"><ele>880.0</ele><time>2026-04-29T07:48:43.932Z</time></trkpt><trkpt lat="39.84421336202992" lon="9.464443166659594"><ele>880.0</ele><time>2026-04-29T07:48:44.932Z</time></trkpt><trkpt lat="39.84427293449865" lon="9.46433941343667"><ele>880.0</ele><time>2026-04-29T07:48:45.932Z</time></trkpt><trkpt lat="39.844312233682054" lon="9.464253776652209"><ele>879.75</ele><time>2026-04-29T07:48:46.932Z</time></trkpt><trkpt lat="39.84434627127722" lon="9.46417960733046"><ele>879.5</ele><time>2026-04-29T07:48:48.932Z</time></trkpt><trkpt lat="39.84418277081688" lon="9.463984099165113"><ele>879.25</ele><time>2026-04-29T07:48:53.932Z</time></trkpt><trkpt lat="39.84409727231482" lon="9.463921840633194"><ele>879.0</ele><time>2026-04-29T07:48:55.932Z</time></trkpt><trkpt lat="39.84402892802084" lon="9.463881514861425"><ele>879.0</ele><time>2026-04-29T07:48:57.932Z</time></trkpt><trkpt lat="39.8439273591592" lon="9.46379994160922"><ele>879.0000000000001</ele><time>2026-04-29T07:48:59.932Z</time></trkpt><trkpt lat="39.84387255208126" lon="9.463735605003468"><ele>879.0000000000001</ele><time>2026-04-29T07:49:00.932Z</time></trkpt><trkpt lat="39.84380963211706" lon="9.463694785049494"><ele>879.0</ele><time>2026-04-29T07:49:01.932Z</time></trkpt><trkpt lat="39.84369304749392" lon="9.463663963039803"><ele>879.0</ele><time>2026-04-29T07:49:03.932Z</time></trkpt><trkpt lat="39.84355639991877" lon="9.463661928383804"><ele>878.6666666666666</ele><time>2026-04-29T07:49:05.932Z</time></trkpt><trkpt lat="39.84348014896122" lon="9.463657237186062"><ele>878.3333333333333</ele><time>2026-04-29T07:49:06.932Z</time></trkpt><trkpt lat="39.843400498638495" lon="9.463623028968714"><ele>878.0</ele><time>2026-04-29T07:49:07.932Z</time></trkpt><trkpt lat="39.84331734986771" lon="9.463598683155135"><ele>877.6666666666666</ele><time>2026-04-29T07:49:08.932Z</time></trkpt><trkpt lat="39.8432267089763" lon="9.463585392500544"><ele>877.3333333333333</ele><time>2026-04-29T07:49:09.932Z</time></trkpt><trkpt lat="39.84315458492354" lon="9.463544007543783"><ele>877.0</ele><time>2026-04-29T07:49:10.932Z</time></trkpt><trkpt lat="39.8430865489111" lon="9.463502873359634"><ele>876.9999999999999</ele><time>2026-04-29T07:49:11.932Z</time></trkpt><trkpt lat="39.842980617458785" lon="9.463421484534482"><ele>877.0</ele><time>2026-04-29T07:49:13.932Z</time></trkpt><trkpt lat="39.84290335384763" lon="9.463397072477997"><ele>877.0</ele><time>2026-04-29T07:49:15.932Z</time></trkpt><trkpt lat="39.84284625224614" lon="9.463435672097562"><ele>877.0</ele><time>2026-04-29T07:49:17.932Z</time></trkpt><trkpt lat="39.842777735264896" lon="9.46352832585541"><ele>876.9999999999999</ele><time>2026-04-29T07:49:19.932Z</time></trkpt><trkpt lat="39.84272283594438" lon="9.463573775875046"><ele>877.0</ele><time>2026-04-29T07:49:20.932Z</time></trkpt><trkpt lat="39.84265948229038" lon="9.463614851095135"><ele>876.3333333333333</ele><time>2026-04-29T07:49:21.932Z</time></trkpt><trkpt lat="39.84256786088374" lon="9.463661586617537"><ele>875.6666666666666</ele><time>2026-04-29T07:49:23.932Z</time></trkpt><trkpt lat="39.84249164109874" lon="9.463664452205284"><ele>875.0</ele><time>2026-04-29T07:49:25.932Z</time></trkpt><trkpt lat="39.84237062920547" lon="9.463643569167816"><ele>874.3333333333333</ele><time>2026-04-29T07:49:27.932Z</time></trkpt><trkpt lat="39.842305758354215" lon="9.463642242124104"><ele>873.6666666666666</ele><time>2026-04-29T07:49:28.932Z</time></trkpt><trkpt lat="39.84224022141997" lon="9.463648752438942"><ele>873.0</ele><time>2026-04-29T07:49:29.932Z</time></trkpt><trkpt lat="39.84212823681181" lon="9.463669063155853"><ele>873.0</ele><time>2026-04-29T07:49:31.932Z</time></trkpt><trkpt lat="39.84203047434445" lon="9.463656237696826"><ele>873.0</ele><time>2026-04-29T07:49:33.932Z</time></trkpt><trkpt lat="39.841943957772024" lon="9.463601768566107"><ele>873.0</ele><time>2026-04-29T07:49:35.932Z</time></trkpt><trkpt lat="39.8418876622462" lon="9.463559010921516"><ele>873.0</ele><time>2026-04-29T07:49:36.932Z</time></trkpt><trkpt lat="39.8418202354402" lon="9.463523405928731"><ele>873.0</ele><time>2026-04-29T07:49:37.932Z</time></trkpt><trkpt lat="39.84176294071584" lon="9.463487796634826"><ele>873.0</ele><time>2026-04-29T07:49:38.932Z</time></trkpt><trkpt lat="39.84170749219091" lon="9.463447186893756"><ele>874.3333333333334</ele><time>2026-04-29T07:49:39.932Z</time></trkpt><trkpt lat="39.84164221006787" lon="9.463398459544967"><ele>875.6666666666667</ele><time>2026-04-29T07:49:40.932Z</time></trkpt><trkpt lat="39.84157375484369" lon="9.463344433093729"><ele>877.0</ele><time>2026-04-29T07:49:41.932Z</time></trkpt><trkpt lat="39.84150965254498" lon="9.463291332399775"><ele>878.3333333333334</ele><time>2026-04-29T07:49:42.932Z</time></trkpt><trkpt lat="39.84144726011895" lon="9.463238480737369"><ele>879.6666666666667</ele><time>2026-04-29T07:49:43.932Z</time></trkpt><trkpt lat="39.84138237980082" lon="9.463180958863099"><ele>881.0</ele><time>2026-04-29T07:49:44.932Z</time></trkpt><trkpt lat="39.84132832401708" lon="9.463126432625723"><ele>881.0000000000001</ele><time>2026-04-29T07:49:45.932Z</time></trkpt><trkpt lat="39.841272304051266" lon="9.463066775192294"><ele>881.0</ele><time>2026-04-29T07:49:46.932Z</time></trkpt><trkpt lat="39.841211309990285" lon="9.463000376837256"><ele>881.0</ele><time>2026-04-29T07:49:47.932Z</time></trkpt><trkpt lat="39.84115231932026" lon="9.462936918447518"><ele>881.0</ele><time>2026-04-29T07:49:48.932Z</time></trkpt><trkpt lat="39.8410788762399" lon="9.46288010358968"><ele>881.0000000000001</ele><time>2026-04-29T07:49:49.932Z</time></trkpt><trkpt lat="39.84101867242885" lon="9.46281523803252"><ele>881.0</ele><time>2026-04-29T07:49:50.932Z</time></trkpt><trkpt lat="39.84094721107055" lon="9.462751944617455"><ele>881.6666666666667</ele><time>2026-04-29T07:49:51.932Z</time></trkpt><trkpt lat="39.840874017357585" lon="9.462678167576776"><ele>882.3333333333334</ele><time>2026-04-29T07:49:52.932Z</time></trkpt><trkpt lat="39.840816221951094" lon="9.462606987561639"><ele>883.0</ele><time>2026-04-29T07:49:53.932Z</time></trkpt><trkpt lat="39.84076442199636" lon="9.462518590705349"><ele>883.6666666666667</ele><time>2026-04-29T07:49:54.931Z</time></trkpt><trkpt lat="39.840721589245256" lon="9.46243066275045"><ele>884.3333333333334</ele><time>2026-04-29T07:49:55.931Z</time></trkpt><trkpt lat="39.840663437775525" lon="9.462353357491995"><ele>885.0</ele><time>2026-04-29T07:49:56.931Z</time></trkpt><trkpt lat="39.84059335307407" lon="9.462281739947567"><ele>885.0</ele><time>2026-04-29T07:49:57.931Z</time></trkpt><trkpt lat="39.84051989890819" lon="9.462212692283115"><ele>885.0</ele><time>2026-04-29T07:49:58.931Z</time></trkpt><trkpt lat="39.84044367544136" lon="9.462160109741367"><ele>885.0</ele><time>2026-04-29T07:49:59.931Z</time></trkpt><trkpt lat="39.84036881711486" lon="9.462112016173643"><ele>885.0</ele><time>2026-04-29T07:50:00.931Z</time></trkpt><trkpt lat="39.84029151807631" lon="9.462067260054205"><ele>885.0</ele><time>2026-04-29T07:50:01.931Z</time></trkpt><trkpt lat="39.84021271693809" lon="9.462014114830165"><ele>885.0</ele><time>2026-04-29T07:50:02.931Z</time></trkpt><trkpt lat="39.84013646746024" lon="9.461960249820633"><ele>884.8333333333334</ele><time>2026-04-29T07:50:03.931Z</time></trkpt><trkpt lat="39.8400598298781" lon="9.461913794816384"><ele>884.6666666666667</ele><time>2026-04-29T07:50:04.931Z</time></trkpt><trkpt lat="39.83997667134993" lon="9.46186544598229"><ele>884.5</ele><time>2026-04-29T07:50:05.931Z</time></trkpt><trkpt lat="39.839892184824095" lon="9.461835094312878"><ele>884.3333333333334</ele><time>2026-04-29T07:50:06.931Z</time></trkpt><trkpt lat="39.83981103090333" lon="9.461808568853368"><ele>884.1666666666667</ele><time>2026-04-29T07:50:07.931Z</time></trkpt><trkpt lat="39.83973692661043" lon="9.46178682437655"><ele>884.0</ele><time>2026-04-29T07:50:08.931Z</time></trkpt><trkpt lat="39.83966160586747" lon="9.461765922432743"><ele>884.0000000000001</ele><time>2026-04-29T07:50:09.931Z</time></trkpt><trkpt lat="39.83958357650864" lon="9.461742236771334"><ele>884.0</ele><time>2026-04-29T07:50:10.931Z</time></trkpt><trkpt lat="39.83949495867542" lon="9.461728402562922"><ele>884.0</ele><time>2026-04-29T07:50:11.931Z</time></trkpt><trkpt lat="39.839411196738695" lon="9.461702794640583"><ele>884.0</ele><time>2026-04-29T07:50:12.931Z</time></trkpt><trkpt lat="39.839331824685935" lon="9.461685591225773"><ele>884.0000000000001</ele><time>2026-04-29T07:50:13.931Z</time></trkpt><trkpt lat="39.83925720349257" lon="9.461687640397328"><ele>884.0</ele><time>2026-04-29T07:50:14.931Z</time></trkpt><trkpt lat="39.83917342622321" lon="9.461718461740057"><ele>884.8333333333334</ele><time>2026-04-29T07:50:15.931Z</time></trkpt><trkpt lat="39.83908871581656" lon="9.46173973344759"><ele>885.6666666666667</ele><time>2026-04-29T07:50:16.931Z</time></trkpt><trkpt lat="39.839002059146566" lon="9.461751730157607"><ele>886.5</ele><time>2026-04-29T07:50:17.931Z</time></trkpt><trkpt lat="39.83891839310302" lon="9.461769931004936"><ele>887.3333333333333</ele><time>2026-04-29T07:50:18.931Z</time></trkpt><trkpt lat="39.83883785853633" lon="9.461794531897477"><ele>888.1666666666666</ele><time>2026-04-29T07:50:19.931Z</time></trkpt><trkpt lat="39.83874960472811" lon="9.46182103586471"><ele>889.0</ele><time>2026-04-29T07:50:20.931Z</time></trkpt><trkpt lat="39.83866294624909" lon="9.461846038780491"><ele>888.9999999999999</ele><time>2026-04-29T07:50:21.931Z</time></trkpt><trkpt lat="39.83857586866433" lon="9.461867313702703"><ele>889.0</ele><time>2026-04-29T07:50:22.931Z</time></trkpt><trkpt lat="39.838496527430586" lon="9.461878586172272"><ele>889.0</ele><time>2026-04-29T07:50:23.931Z</time></trkpt><trkpt lat="39.83841124865129" lon="9.461889797196223"><ele>889.0</ele><time>2026-04-29T07:50:24.931Z</time></trkpt><trkpt lat="39.83832692762262" lon="9.461905083017058"><ele>888.9999999999999</ele><time>2026-04-29T07:50:25.931Z</time></trkpt><trkpt lat="39.838242205627395" lon="9.461922579689547"><ele>889.0</ele><time>2026-04-29T07:50:26.931Z</time></trkpt><trkpt lat="39.8381597793169" lon="9.461945673793187"><ele>889.1666666666666</ele><time>2026-04-29T07:50:27.931Z</time></trkpt><trkpt lat="39.8380724977446" lon="9.46197342832888"><ele>889.3333333333333</ele><time>2026-04-29T07:50:28.931Z</time></trkpt><trkpt lat="39.838008633247235" lon="9.462006004703174"><ele>889.5</ele><time>2026-04-29T07:50:29.931Z</time></trkpt><trkpt lat="39.837946010364355" lon="9.462050132101872"><ele>889.6666666666667</ele><time>2026-04-29T07:50:30.93Z</time></trkpt><trkpt lat="39.83785458082412" lon="9.462092987516908"><ele>889.8333333333334</ele><time>2026-04-29T07:50:32.93Z</time></trkpt><trkpt lat="39.837768248500055" lon="9.46212359689895"><ele>890.0</ele><time>2026-04-29T07:50:34.93Z</time></trkpt><trkpt lat="39.83770957474154" lon="9.46208855930047"><ele>891.5</ele><time>2026-04-29T07:50:36.931Z</time></trkpt><trkpt lat="39.83761801371135" lon="9.462029435056854"><ele>893.0</ele><time>2026-04-29T07:50:38.93Z</time></trkpt><trkpt lat="39.837502793312176" lon="9.461989479792706"><ele>894.5</ele><time>2026-04-29T07:50:40.93Z</time></trkpt><trkpt lat="39.837413326576076" lon="9.461896267995334"><ele>896.0</ele><time>2026-04-29T07:50:42.93Z</time></trkpt><trkpt lat="39.83733666422886" lon="9.461760364639083"><ele>896.0000000000001</ele><time>2026-04-29T07:50:44.93Z</time></trkpt><trkpt lat="39.837307254959434" lon="9.461674530479188"><ele>896.0</ele><time>2026-04-29T07:50:45.93Z</time></trkpt><trkpt lat="39.83728573919906" lon="9.461588008137321"><ele>896.0</ele><time>2026-04-29T07:50:46.93Z</time></trkpt><trkpt lat="39.83727193911392" lon="9.461505345356986"><ele>896.0</ele><time>2026-04-29T07:50:47.93Z</time></trkpt><trkpt lat="39.83724777827501" lon="9.461416985237095"><ele>896.0000000000001</ele><time>2026-04-29T07:50:48.93Z</time></trkpt><trkpt lat="39.83724279832143" lon="9.46126818715067"><ele>896.0</ele><time>2026-04-29T07:50:50.93Z</time></trkpt><trkpt lat="39.8372532660368" lon="9.461127600588329"><ele>896.4</ele><time>2026-04-29T07:50:52.93Z</time></trkpt><trkpt lat="39.83726374903831" lon="9.460968501649283"><ele>896.8</ele><time>2026-04-29T07:50:54.93Z</time></trkpt><trkpt lat="39.83725250457257" lon="9.460882175704999"><ele>897.1999999999999</ele><time>2026-04-29T07:50:55.93Z</time></trkpt><trkpt lat="39.837226465576265" lon="9.460735416557425"><ele>897.5999999999999</ele><time>2026-04-29T07:50:57.93Z</time></trkpt><trkpt lat="39.837213906826804" lon="9.46059100381994"><ele>898.0</ele><time>2026-04-29T07:50:59.93Z</time></trkpt><trkpt lat="39.83716907609905" lon="9.460435589988428"><ele>897.0</ele><time>2026-04-29T07:51:01.93Z</time></trkpt><trkpt lat="39.83708287907812" lon="9.460292867856065"><ele>896.0</ele><time>2026-04-29T07:51:03.93Z</time></trkpt><trkpt lat="39.837025446882635" lon="9.460219430974727"><ele>895.0</ele><time>2026-04-29T07:51:04.93Z</time></trkpt><trkpt lat="39.83697170832752" lon="9.460147812071993"><ele>894.0</ele><time>2026-04-29T07:51:05.93Z</time></trkpt><trkpt lat="39.83687039830791" lon="9.460025262027871"><ele>893.0</ele><time>2026-04-29T07:51:07.93Z</time></trkpt><trkpt lat="39.83680772550641" lon="9.45996455188138"><ele>896.5999999999999</ele><time>2026-04-29T07:51:08.93Z</time></trkpt><trkpt lat="39.83676818771982" lon="9.459900559791928"><ele>900.1999999999999</ele><time>2026-04-29T07:51:09.93Z</time></trkpt><trkpt lat="39.83670863131241" lon="9.459769649359766"><ele>903.8</ele><time>2026-04-29T07:51:11.93Z</time></trkpt><trkpt lat="39.83668169974623" lon="9.459676198913925"><ele>907.4</ele><time>2026-04-29T07:51:13.93Z</time></trkpt><trkpt lat="39.83664984754626" lon="9.459524721656507"><ele>911.0</ele><time>2026-04-29T07:51:15.93Z</time></trkpt><trkpt lat="39.83659198639479" lon="9.45937373359248"><ele>911.0000000000001</ele><time>2026-04-29T07:51:17.93Z</time></trkpt><trkpt lat="39.83656108368437" lon="9.459288583824767"><ele>911.0</ele><time>2026-04-29T07:51:18.93Z</time></trkpt><trkpt lat="39.83651642413117" lon="9.459192685247835"><ele>911.0</ele><time>2026-04-29T07:51:19.93Z</time></trkpt><trkpt lat="39.8364786064337" lon="9.459082335261106"><ele>911.0</ele><time>2026-04-29T07:51:20.93Z</time></trkpt><trkpt lat="39.83644199659508" lon="9.45897580746149"><ele>911.0000000000001</ele><time>2026-04-29T07:51:21.93Z</time></trkpt><trkpt lat="39.83639928772822" lon="9.458865427088504"><ele>911.0</ele><time>2026-04-29T07:51:22.93Z</time></trkpt><trkpt lat="39.83635677321099" lon="9.458750672304442"><ele>909.5999999999999</ele><time>2026-04-29T07:51:23.93Z</time></trkpt><trkpt lat="39.836311958027856" lon="9.458627432734145"><ele>908.1999999999999</ele><time>2026-04-29T07:51:24.93Z</time></trkpt><trkpt lat="39.83627790448003" lon="9.458525041109873"><ele>906.8000000000001</ele><time>2026-04-29T07:51:25.93Z</time></trkpt><trkpt lat="39.83624149708362" lon="9.45842174348675"><ele>905.4000000000001</ele><time>2026-04-29T07:51:26.93Z</time></trkpt><trkpt lat="39.836204023452495" lon="9.458305652480536"><ele>904.0</ele><time>2026-04-29T07:51:27.93Z</time></trkpt><trkpt lat="39.8361752038597" lon="9.458200914549657"><ele>903.9999999999999</ele><time>2026-04-29T07:51:28.93Z</time></trkpt><trkpt lat="39.83614463572011" lon="9.4581013954925"><ele>904.0</ele><time>2026-04-29T07:51:29.93Z</time></trkpt><trkpt lat="39.83611438008682" lon="9.45801144556599"><ele>904.0</ele><time>2026-04-29T07:51:30.93Z</time></trkpt><trkpt lat="39.83609574722838" lon="9.457925935643852"><ele>904.0</ele><time>2026-04-29T07:51:31.93Z</time></trkpt><trkpt lat="39.836077165698434" lon="9.457824129188348"><ele>903.9999999999999</ele><time>2026-04-29T07:51:32.93Z</time></trkpt><trkpt lat="39.83606555558709" lon="9.45770915022336"><ele>904.0</ele><time>2026-04-29T07:51:33.93Z</time></trkpt><trkpt lat="39.83606306368002" lon="9.457584898112557"><ele>903.0</ele><time>2026-04-29T07:51:34.93Z</time></trkpt><trkpt lat="39.83605601958169" lon="9.457468622517917"><ele>902.0000000000001</ele><time>2026-04-29T07:51:35.93Z</time></trkpt><trkpt lat="39.836058369776175" lon="9.457350366001382"><ele>901.0000000000001</ele><time>2026-04-29T07:51:36.93Z</time></trkpt><trkpt lat="39.836054804511654" lon="9.457229310546415"><ele>900.0</ele><time>2026-04-29T07:51:37.93Z</time></trkpt><trkpt lat="39.836053104958225" lon="9.457099927613765"><ele>899.0</ele><time>2026-04-29T07:51:38.93Z</time></trkpt><trkpt lat="39.83605256856151" lon="9.45697402184399"><ele>897.6666666666667</ele><time>2026-04-29T07:51:39.93Z</time></trkpt><trkpt lat="39.83604175066582" lon="9.456863940401492"><ele>896.3333333333334</ele><time>2026-04-29T07:51:40.93Z</time></trkpt><trkpt lat="39.836022981593814" lon="9.456766949442844"><ele>895.0</ele><time>2026-04-29T07:51:41.93Z</time></trkpt><trkpt lat="39.83599736056652" lon="9.456679479666775"><ele>893.6666666666667</ele><time>2026-04-29T07:51:42.93Z</time></trkpt><trkpt lat="39.835964850690594" lon="9.456600878789986"><ele>892.3333333333334</ele><time>2026-04-29T07:51:43.93Z</time></trkpt><trkpt lat="39.83592127249774" lon="9.456515767257578"><ele>891.0</ele><time>2026-04-29T07:51:44.93Z</time></trkpt><trkpt lat="39.835863367461855" lon="9.45642899368407"><ele>893.8</ele><time>2026-04-29T07:51:45.93Z</time></trkpt><trkpt lat="39.835802546996604" lon="9.45636504876812"><ele>896.5999999999999</ele><time>2026-04-29T07:51:46.93Z</time></trkpt><trkpt lat="39.83572803189163" lon="9.456304678034856"><ele>899.4</ele><time>2026-04-29T07:51:47.93Z</time></trkpt><trkpt lat="39.83566217620305" lon="9.456262129058937"><ele>902.2</ele><time>2026-04-29T07:51:48.93Z</time></trkpt><trkpt lat="39.835537223661106" lon="9.456214004415992"><ele>905.0</ele><time>2026-04-29T07:51:50.93Z</time></trkpt><trkpt lat="39.83544155714195" lon="9.45614830061128"><ele>905.0</ele><time>2026-04-29T07:51:51.93Z</time></trkpt><trkpt lat="39.83533617776585" lon="9.456070122767507"><ele>905.0</ele><time>2026-04-29T07:51:52.93Z</time></trkpt><trkpt lat="39.835242682206605" lon="9.456003186159426"><ele>905.0</ele><time>2026-04-29T07:51:53.93Z</time></trkpt><trkpt lat="39.83514829817866" lon="9.455937381932983"><ele>905.0</ele><time>2026-04-29T07:51:54.93Z</time></trkpt><trkpt lat="39.83506279257908" lon="9.455870956843874"><ele>905.0</ele><time>2026-04-29T07:51:55.93Z</time></trkpt><trkpt lat="39.834981889488404" lon="9.45580427377655"><ele>905.4</ele><time>2026-04-29T07:51:56.93Z</time></trkpt><trkpt lat="39.83490715072844" lon="9.455743087975744"><ele>905.8</ele><time>2026-04-29T07:51:57.93Z</time></trkpt><trkpt lat="39.83482887240685" lon="9.455675951377767"><ele>906.2</ele><time>2026-04-29T07:51:58.93Z</time></trkpt><trkpt lat="39.83474382345141" lon="9.455602744727457"><ele>906.6</ele><time>2026-04-29T07:51:59.93Z</time></trkpt><trkpt lat="39.83465929514273" lon="9.455522796741038"><ele>907.0</ele><time>2026-04-29T07:52:00.93Z</time></trkpt><trkpt lat="39.83458056715675" lon="9.45543851292475"><ele>907.0</ele><time>2026-04-29T07:52:01.93Z</time></trkpt><trkpt lat="39.834516011243316" lon="9.455347567603125"><ele>907.0</ele><time>2026-04-29T07:52:02.93Z</time></trkpt><trkpt lat="39.834440159857714" lon="9.455252580388773"><ele>907.0</ele><time>2026-04-29T07:52:03.93Z</time></trkpt><trkpt lat="39.834370205821614" lon="9.455152526277615"><ele>907.0</ele><time>2026-04-29T07:52:04.93Z</time></trkpt><trkpt lat="39.83431820058597" lon="9.455065957881901"><ele>907.0</ele><time>2026-04-29T07:52:05.93Z</time></trkpt><trkpt lat="39.83428837847249" lon="9.454987063338447"><ele>911.4999999999999</ele><time>2026-04-29T07:52:06.93Z</time></trkpt><trkpt lat="39.834254519971765" lon="9.454916308729498"><ele>916.0</ele><time>2026-04-29T07:52:07.93Z</time></trkpt><trkpt lat="39.83423795522822" lon="9.454836334975248"><ele>920.5</ele><time>2026-04-29T07:52:08.93Z</time></trkpt><trkpt lat="39.83424733065025" lon="9.454675590681967"><ele>925.0</ele><time>2026-04-29T07:52:10.93Z</time></trkpt><trkpt lat="39.83424319022347" lon="9.454558364841873"><ele>929.4999999999999</ele><time>2026-04-29T07:52:11.93Z</time></trkpt><trkpt lat="39.83423246476084" lon="9.45444375727615"><ele>934.0</ele><time>2026-04-29T07:52:12.93Z</time></trkpt><trkpt lat="39.834221421303" lon="9.454321622695426"><ele>933.9999999999999</ele><time>2026-04-29T07:52:13.93Z</time></trkpt><trkpt lat="39.83420344447178" lon="9.454203155665365"><ele>934.0</ele><time>2026-04-29T07:52:14.93Z</time></trkpt><trkpt lat="39.83419292202479" lon="9.454094829437922"><ele>934.0</ele><time>2026-04-29T07:52:15.93Z</time></trkpt><trkpt lat="39.8341941264212" lon="9.454008896030725"><ele>934.0</ele><time>2026-04-29T07:52:16.93Z</time></trkpt><trkpt lat="39.83418675261671" lon="9.453920073636699"><ele>933.9999999999999</ele><time>2026-04-29T07:52:18.93Z</time></trkpt><trkpt lat="39.83412529440951" lon="9.45385231379535"><ele>934.0</ele><time>2026-04-29T07:52:20.93Z</time></trkpt><trkpt lat="39.8340711535299" lon="9.453806680382357"><ele>931.8333333333333</ele><time>2026-04-29T07:52:21.93Z</time></trkpt><trkpt lat="39.83401211634305" lon="9.453761070553988"><ele>929.6666666666666</ele><time>2026-04-29T07:52:22.93Z</time></trkpt><trkpt lat="39.83394015302652" lon="9.45370510655565"><ele>927.5</ele><time>2026-04-29T07:52:23.929Z</time></trkpt><trkpt lat="39.8338722449345" lon="9.453637357947136"><ele>925.3333333333333</ele><time>2026-04-29T07:52:24.929Z</time></trkpt><trkpt lat="39.833825405660285" lon="9.453559495383901"><ele>923.1666666666666</ele><time>2026-04-29T07:52:25.929Z</time></trkpt><trkpt lat="39.83378380150123" lon="9.453479622999254"><ele>921.0</ele><time>2026-04-29T07:52:26.929Z</time></trkpt><trkpt lat="39.833761789047074" lon="9.45332478316686"><ele>921.0</ele><time>2026-04-29T07:52:28.929Z</time></trkpt><trkpt lat="39.83371904575568" lon="9.45324851613024"><ele>920.9999999999999</ele><time>2026-04-29T07:52:30.929Z</time></trkpt><trkpt lat="39.83362060611707" lon="9.453117502581886"><ele>920.9999999999999</ele><time>2026-04-29T07:52:32.929Z</time></trkpt><trkpt lat="39.83354996811976" lon="9.453032274514607"><ele>921.0</ele><time>2026-04-29T07:52:33.929Z</time></trkpt><trkpt lat="39.83348985325349" lon="9.452944333707402"><ele>921.0</ele><time>2026-04-29T07:52:34.929Z</time></trkpt><trkpt lat="39.833409333648774" lon="9.45286215442365"><ele>922.5</ele><time>2026-04-29T07:52:35.929Z</time></trkpt><trkpt lat="39.83333856854208" lon="9.452804753256354"><ele>924.0</ele><time>2026-04-29T07:52:36.929Z</time></trkpt><trkpt lat="39.833302979017006" lon="9.452730555038837"><ele>925.5</ele><time>2026-04-29T07:52:37.928Z</time></trkpt><trkpt lat="39.83328898423865" lon="9.452608731666631"><ele>927.0</ele><time>2026-04-29T07:52:39.928Z</time></trkpt><trkpt lat="39.83334859882287" lon="9.452475748286739"><ele>928.5</ele><time>2026-04-29T07:52:41.928Z</time></trkpt><trkpt lat="39.83338444575696" lon="9.452397762169666"><ele>930.0</ele><time>2026-04-29T07:52:42.929Z</time></trkpt><trkpt lat="39.83341457542287" lon="9.45231295403044"><ele>930.0</ele><time>2026-04-29T07:52:43.928Z</time></trkpt><trkpt lat="39.833427996743616" lon="9.45222344313742"><ele>930.0</ele><time>2026-04-29T07:52:44.928Z</time></trkpt><trkpt lat="39.83343185352041" lon="9.45214088972919"><ele>930.0</ele><time>2026-04-29T07:52:45.929Z</time></trkpt><trkpt lat="39.83343036441022" lon="9.452046477065013"><ele>930.0</ele><time>2026-04-29T07:52:47.928Z</time></trkpt><trkpt lat="39.83335804488932" lon="9.451999265371013"><ele>930.0</ele><time>2026-04-29T07:52:51.929Z</time></trkpt><trkpt lat="39.833332083139155" lon="9.451918815783317"><ele>930.0</ele><time>2026-04-29T07:52:55.929Z</time></trkpt><trkpt lat="39.83329609456228" lon="9.451793667439768"><ele>930.1428571428571</ele><time>2026-04-29T07:52:59.929Z</time></trkpt><trkpt lat="39.83324105074" lon="9.45171716756061"><ele>930.2857142857143</ele><time>2026-04-29T07:53:02.929Z</time></trkpt><trkpt lat="39.83319660448454" lon="9.45163431500472"><ele>930.4285714285714</ele><time>2026-04-29T07:53:04.928Z</time></trkpt><trkpt lat="39.833161346375995" lon="9.451558933091782"><ele>930.5714285714286</ele><time>2026-04-29T07:53:05.928Z</time></trkpt><trkpt lat="39.833114707198455" lon="9.451476842673584"><ele>930.7142857142858</ele><time>2026-04-29T07:53:06.928Z</time></trkpt><trkpt lat="39.833082016881555" lon="9.451397089584578"><ele>930.8571428571429</ele><time>2026-04-29T07:53:07.928Z</time></trkpt><trkpt lat="39.83306019824644" lon="9.45131931060268"><ele>931.0</ele><time>2026-04-29T07:53:08.928Z</time></trkpt><trkpt lat="39.83302269413634" lon="9.45123838495636"><ele>928.9999999999999</ele><time>2026-04-29T07:53:09.928Z</time></trkpt><trkpt lat="39.83298446790763" lon="9.451167873929991"><ele>927.0</ele><time>2026-04-29T07:53:10.928Z</time></trkpt><trkpt lat="39.83293416400533" lon="9.451063454716898"><ele>925.0</ele><time>2026-04-29T07:53:12.928Z</time></trkpt><trkpt lat="39.83287572920113" lon="9.45098404342409"><ele>923.0</ele><time>2026-04-29T07:53:16.928Z</time></trkpt><trkpt lat="39.83285469638883" lon="9.450904898801058"><ele>920.9999999999999</ele><time>2026-04-29T07:53:20.928Z</time></trkpt><trkpt lat="39.83281790139917" lon="9.450810613691397"><ele>919.0</ele><time>2026-04-29T07:53:25.928Z</time></trkpt><trkpt lat="39.8327940852667" lon="9.450719175619879"><ele>918.9999999999999</ele><time>2026-04-29T07:53:30.928Z</time></trkpt><trkpt lat="39.83274525571391" lon="9.450649136912068"><ele>919.0</ele><time>2026-04-29T07:53:41.928Z</time></trkpt><trkpt lat="39.83267222715677" lon="9.450567237198433"><ele>919.0</ele><time>2026-04-29T07:54:07.928Z</time></trkpt><trkpt lat="39.832654021125066" lon="9.450485223924762"><ele>919.0</ele><time>2026-04-29T07:54:14.928Z</time></trkpt><trkpt lat="39.832648854739666" lon="9.450386952108143"><ele>918.9999999999999</ele><time>2026-04-29T07:54:26.928Z</time></trkpt><trkpt lat="39.832624234556725" lon="9.450294194431466"><ele>919.0</ele><time>2026-04-29T07:56:50.925Z</time></trkpt><trkpt lat="39.83257410046851" lon="9.450200929531805"><ele>921.2</ele><time>2026-04-29T07:56:53.924Z</time></trkpt><trkpt lat="39.83252114814082" lon="9.450082050288817"><ele>923.4000000000001</ele><time>2026-04-29T07:56:55.925Z</time></trkpt><trkpt lat="39.83245824824414" lon="9.450014414381494"><ele>925.6</ele><time>2026-04-29T07:56:57.924Z</time></trkpt><trkpt lat="39.832399476941596" lon="9.449953017139425"><ele>927.8</ele><time>2026-04-29T07:56:59.924Z</time></trkpt><trkpt lat="39.83231068381296" lon="9.449839166125567"><ele>930.0</ele><time>2026-04-29T07:57:01.924Z</time></trkpt><trkpt lat="39.83222717462407" lon="9.449745902198096"><ele>930.0</ele><time>2026-04-29T07:57:03.924Z</time></trkpt><trkpt lat="39.832131368267525" lon="9.449671451220434"><ele>930.0</ele><time>2026-04-29T07:57:05.924Z</time></trkpt><trkpt lat="39.83206879525292" lon="9.44963627890748"><ele>930.0</ele><time>2026-04-29T07:57:06.924Z</time></trkpt><trkpt lat="39.831963151710184" lon="9.449548867975198"><ele>930.0</ele><time>2026-04-29T07:57:08.924Z</time></trkpt><trkpt lat="39.83184333492751" lon="9.449485522082046"><ele>930.0</ele><time>2026-04-29T07:57:10.926Z</time></trkpt><trkpt lat="39.831783195648725" lon="9.449432822911728"><ele>931.8333333333334</ele><time>2026-04-29T07:57:11.926Z</time></trkpt><trkpt lat="39.83171488847719" lon="9.449386297116423"><ele>933.6666666666667</ele><time>2026-04-29T07:57:12.927Z</time></trkpt><trkpt lat="39.831620542624364" lon="9.44929618616688"><ele>935.5</ele><time>2026-04-29T07:57:14.927Z</time></trkpt><trkpt lat="39.83158361866854" lon="9.449218145971273"><ele>937.3333333333334</ele><time>2026-04-29T07:57:15.928Z</time></trkpt><trkpt lat="39.831537998363295" lon="9.449148925954026"><ele>939.1666666666667</ele><time>2026-04-29T07:57:16.928Z</time></trkpt><trkpt lat="39.83147576189285" lon="9.449087102783226"><ele>941.0</ele><time>2026-04-29T07:57:17.929Z</time></trkpt><trkpt lat="39.83141589831514" lon="9.449046791392302"><ele>941.0000000000001</ele><time>2026-04-29T07:57:18.929Z</time></trkpt><trkpt lat="39.831352626346124" lon="9.448993087872498"><ele>941.0</ele><time>2026-04-29T07:57:19.929Z</time></trkpt><trkpt lat="39.831294202220775" lon="9.44893516211423"><ele>941.0</ele><time>2026-04-29T07:57:20.93Z</time></trkpt><trkpt lat="39.83124191113421" lon="9.448861404259596"><ele>941.0</ele><time>2026-04-29T07:57:21.93Z</time></trkpt><trkpt lat="39.83119123934381" lon="9.448787179230484"><ele>941.0000000000001</ele><time>2026-04-29T07:57:22.93Z</time></trkpt><trkpt lat="39.83114666078863" lon="9.448670203619688"><ele>941.0</ele><time>2026-04-29T07:57:24.931Z</time></trkpt><trkpt lat="39.83113305318685" lon="9.448528827202589"><ele>938.0</ele><time>2026-04-29T07:57:26.931Z</time></trkpt><trkpt lat="39.83109675266847" lon="9.448441428431165"><ele>934.9999999999999</ele><time>2026-04-29T07:57:27.931Z</time></trkpt><trkpt lat="39.83108457766105" lon="9.448237068671492"><ele>931.9999999999999</ele><time>2026-04-29T07:57:29.931Z</time></trkpt><trkpt lat="39.83107503130407" lon="9.448129652475664"><ele>929.0</ele><time>2026-04-29T07:57:30.932Z</time></trkpt><trkpt lat="39.83105521742623" lon="9.448019953938502"><ele>926.0</ele><time>2026-04-29T07:57:31.932Z</time></trkpt><trkpt lat="39.83101103675932" lon="9.447876289354284"><ele>930.0</ele><time>2026-04-29T07:57:33.932Z</time></trkpt><trkpt lat="39.830926623597996" lon="9.447748052547455"><ele>933.9999999999999</ele><time>2026-04-29T07:57:35.932Z</time></trkpt><trkpt lat="39.83086645451647" lon="9.447676002589157"><ele>937.9999999999999</ele><time>2026-04-29T07:57:36.932Z</time></trkpt><trkpt lat="39.83079581498621" lon="9.44759491790269"><ele>942.0</ele><time>2026-04-29T07:57:37.932Z</time></trkpt><trkpt lat="39.83072421497707" lon="9.447507167587856"><ele>946.0</ele><time>2026-04-29T07:57:38.932Z</time></trkpt><trkpt lat="39.83066013247186" lon="9.447432996788475"><ele>946.0</ele><time>2026-04-29T07:57:39.933Z</time></trkpt><trkpt lat="39.83058883603086" lon="9.447355639699515"><ele>945.9999999999999</ele><time>2026-04-29T07:57:40.933Z</time></trkpt><trkpt lat="39.830508850152334" lon="9.447253635509176"><ele>945.9999999999999</ele><time>2026-04-29T07:57:41.933Z</time></trkpt><trkpt lat="39.83044431382054" lon="9.447168020555253"><ele>946.0</ele><time>2026-04-29T07:57:42.933Z</time></trkpt><trkpt lat="39.83038517894165" lon="9.447084160457056"><ele>946.0</ele><time>2026-04-29T07:57:43.933Z</time></trkpt><trkpt lat="39.83032060139535" lon="9.446988050554376"><ele>947.4999999999999</ele><time>2026-04-29T07:57:44.933Z</time></trkpt><trkpt lat="39.83024489144768" lon="9.446915623793736"><ele>949.0</ele><time>2026-04-29T07:57:45.933Z</time></trkpt><trkpt lat="39.83017482004417" lon="9.446840323021501"><ele>950.5</ele><time>2026-04-29T07:57:46.933Z</time></trkpt><trkpt lat="39.83010434631756" lon="9.446763035446248"><ele>952.0</ele><time>2026-04-29T07:57:47.933Z</time></trkpt><trkpt lat="39.83004206163443" lon="9.446688001310434"><ele>953.4999999999999</ele><time>2026-04-29T07:57:48.933Z</time></trkpt><trkpt lat="39.82998515053511" lon="9.44660751072915"><ele>955.0</ele><time>2026-04-29T07:57:49.933Z</time></trkpt><trkpt lat="39.82995434337653" lon="9.446512791199668"><ele>955.0</ele><time>2026-04-29T07:57:50.933Z</time></trkpt><trkpt lat="39.8299240510236" lon="9.446407542212256"><ele>955.0</ele><time>2026-04-29T07:57:51.933Z</time></trkpt><trkpt lat="39.82990295187443" lon="9.446286328735386"><ele>955.0</ele><time>2026-04-29T07:57:52.933Z</time></trkpt><trkpt lat="39.82987860148845" lon="9.44615970757152"><ele>955.0</ele><time>2026-04-29T07:57:53.933Z</time></trkpt><trkpt lat="39.82985497538765" lon="9.446046546322739"><ele>955.0</ele><time>2026-04-29T07:57:54.933Z</time></trkpt><trkpt lat="39.829830198415735" lon="9.445947023306177"><ele>952.2</ele><time>2026-04-29T07:57:55.933Z</time></trkpt><trkpt lat="39.82978203685823" lon="9.445855299880623"><ele>949.4</ele><time>2026-04-29T07:57:56.933Z</time></trkpt><trkpt lat="39.829746981936" lon="9.445744594071371"><ele>946.5999999999999</ele><time>2026-04-29T07:57:57.933Z</time></trkpt><trkpt lat="39.82969481127252" lon="9.445656198578549"><ele>943.8</ele><time>2026-04-29T07:57:58.933Z</time></trkpt><trkpt lat="39.829659339196816" lon="9.445554639660694"><ele>941.0</ele><time>2026-04-29T07:57:59.933Z</time></trkpt><trkpt lat="39.829616825119395" lon="9.445414075400237"><ele>940.0</ele><time>2026-04-29T07:58:00.933Z</time></trkpt><trkpt lat="39.82958079364543" lon="9.445294722603142"><ele>938.9999999999999</ele><time>2026-04-29T07:58:01.933Z</time></trkpt><trkpt lat="39.82953086700046" lon="9.44517857865441"><ele>937.9999999999999</ele><time>2026-04-29T07:58:02.933Z</time></trkpt><trkpt lat="39.82948210339236" lon="9.445059914594346"><ele>937.0</ele><time>2026-04-29T07:58:03.933Z</time></trkpt><trkpt lat="39.82942180168565" lon="9.444955744003304"><ele>936.0</ele><time>2026-04-29T07:58:04.933Z</time></trkpt><trkpt lat="39.829372262157584" lon="9.444866319240402"><ele>936.0</ele><time>2026-04-29T07:58:05.933Z</time></trkpt><trkpt lat="39.8293558018787" lon="9.444765241738345"><ele>936.0000000000001</ele><time>2026-04-29T07:58:06.933Z</time></trkpt><trkpt lat="39.82935263505427" lon="9.444669468568865"><ele>936.0</ele><time>2026-04-29T07:58:07.934Z</time></trkpt><trkpt lat="39.82938232973479" lon="9.444593657990302"><ele>936.0</ele><time>2026-04-29T07:58:08.934Z</time></trkpt><trkpt lat="39.82943012822553" lon="9.444535450827582"><ele>936.0000000000001</ele><time>2026-04-29T07:58:09.934Z</time></trkpt><trkpt lat="39.829479951326405" lon="9.444470395039694"><ele>936.0</ele><time>2026-04-29T07:58:10.934Z</time></trkpt><trkpt lat="39.8295322427763" lon="9.444376888928762"><ele>936.0</ele><time>2026-04-29T07:58:11.934Z</time></trkpt><trkpt lat="39.82958937895713" lon="9.44428887259506"><ele>935.8333333333334</ele><time>2026-04-29T07:58:12.934Z</time></trkpt><trkpt lat="39.82964681657094" lon="9.444213339298418"><ele>935.6666666666667</ele><time>2026-04-29T07:58:13.934Z</time></trkpt><trkpt lat="39.82970564315805" lon="9.444125029334053"><ele>935.5</ele><time>2026-04-29T07:58:14.934Z</time></trkpt><trkpt lat="39.82975668003477" lon="9.44402378147002"><ele>935.3333333333334</ele><time>2026-04-29T07:58:15.934Z</time></trkpt><trkpt lat="39.82978944279537" lon="9.443938591176236"><ele>935.1666666666667</ele><time>2026-04-29T07:58:16.934Z</time></trkpt><trkpt lat="39.82981396744574" lon="9.44380228958978"><ele>935.0</ele><time>2026-04-29T07:58:18.934Z</time></trkpt><trkpt lat="39.82976682103806" lon="9.443655554934017"><ele>935.0000000000001</ele><time>2026-04-29T07:58:20.934Z</time></trkpt><trkpt lat="39.82970918584701" lon="9.443513497650514"><ele>935.0</ele><time>2026-04-29T07:58:22.934Z</time></trkpt><trkpt lat="39.8296503774862" lon="9.443447261524264"><ele>935.0</ele><time>2026-04-29T07:58:23.934Z</time></trkpt><trkpt lat="39.829590000788556" lon="9.443384575262511"><ele>935.0</ele><time>2026-04-29T07:58:24.934Z</time></trkpt><trkpt lat="39.82953089376702" lon="9.443317782502922"><ele>935.0000000000001</ele><time>2026-04-29T07:58:25.934Z</time></trkpt><trkpt lat="39.82947731127934" lon="9.44325096232872"><ele>935.0</ele><time>2026-04-29T07:58:26.934Z</time></trkpt><trkpt lat="39.82942291406909" lon="9.443195906328269"><ele>935.0000000000001</ele><time>2026-04-29T07:58:27.934Z</time></trkpt><trkpt lat="39.829364047615854" lon="9.443166252720426"><ele>935.0</ele><time>2026-04-29T07:58:28.934Z</time></trkpt><trkpt lat="39.82929627151465" lon="9.443125183821362"><ele>935.0</ele><time>2026-04-29T07:58:29.934Z</time></trkpt><trkpt lat="39.82922033890132" lon="9.443082141455207"><ele>935.0</ele><time>2026-04-29T07:58:30.934Z</time></trkpt><trkpt lat="39.82915287257705" lon="9.443030799976855"><ele>935.0000000000001</ele><time>2026-04-29T07:58:31.934Z</time></trkpt><trkpt lat="39.82909691493244" lon="9.442951565091517"><ele>935.0</ele><time>2026-04-29T07:58:32.934Z</time></trkpt><trkpt lat="39.82905048457576" lon="9.442850588277116"><ele>937.8333333333334</ele><time>2026-04-29T07:58:33.934Z</time></trkpt><trkpt lat="39.829010774042374" lon="9.44275939313524"><ele>940.6666666666667</ele><time>2026-04-29T07:58:34.934Z</time></trkpt><trkpt lat="39.828970535838934" lon="9.442649467957065"><ele>943.5</ele><time>2026-04-29T07:58:35.934Z</time></trkpt><trkpt lat="39.828938982704486" lon="9.442553678869384"><ele>946.3333333333333</ele><time>2026-04-29T07:58:36.934Z</time></trkpt><trkpt lat="39.8288847846683" lon="9.442459404388591"><ele>949.1666666666666</ele><time>2026-04-29T07:58:37.934Z</time></trkpt><trkpt lat="39.82882336853211" lon="9.442366274424415"><ele>952.0</ele><time>2026-04-29T07:58:38.934Z</time></trkpt><trkpt lat="39.8287497202202" lon="9.442259372481013"><ele>951.9999999999999</ele><time>2026-04-29T07:58:39.934Z</time></trkpt><trkpt lat="39.82868425556546" lon="9.442155415678519"><ele>952.0</ele><time>2026-04-29T07:58:40.934Z</time></trkpt><trkpt lat="39.828624495666055" lon="9.442059467122304"><ele>952.0</ele><time>2026-04-29T07:58:41.933Z</time></trkpt><trkpt lat="39.828555348432275" lon="9.441978966632183"><ele>952.0</ele><time>2026-04-29T07:58:42.933Z</time></trkpt><trkpt lat="39.828491934354176" lon="9.441916459473859"><ele>951.9999999999999</ele><time>2026-04-29T07:58:43.933Z</time></trkpt><trkpt lat="39.8284276011196" lon="9.441863319856191"><ele>952.0</ele><time>2026-04-29T07:58:44.933Z</time></trkpt><trkpt lat="39.82835903087841" lon="9.441823110133845"><ele>952.3333333333333</ele><time>2026-04-29T07:58:45.933Z</time></trkpt><trkpt lat="39.828284755918226" lon="9.441774190855435"><ele>952.6666666666666</ele><time>2026-04-29T07:58:46.933Z</time></trkpt><trkpt lat="39.828211207335706" lon="9.441702185728122"><ele>953.0</ele><time>2026-04-29T07:58:47.933Z</time></trkpt><trkpt lat="39.8281337555221" lon="9.441631393113907"><ele>953.3333333333333</ele><time>2026-04-29T07:58:48.933Z</time></trkpt><trkpt lat="39.82807607627791" lon="9.441560479399639"><ele>953.6666666666666</ele><time>2026-04-29T07:58:49.933Z</time></trkpt><trkpt lat="39.82801261027472" lon="9.441528428550535"><ele>954.0</ele><time>2026-04-29T07:58:50.933Z</time></trkpt><trkpt lat="39.82795045894535" lon="9.44150859403576"><ele>954.0</ele><time>2026-04-29T07:58:51.933Z</time></trkpt><trkpt lat="39.82788076425023" lon="9.441491064222305"><ele>954.0</ele><time>2026-04-29T07:58:52.933Z</time></trkpt><trkpt lat="39.827801609965334" lon="9.441480181948032"><ele>954.0</ele><time>2026-04-29T07:58:53.932Z</time></trkpt><trkpt lat="39.82771287048967" lon="9.44148085114893"><ele>954.0</ele><time>2026-04-29T07:58:54.932Z</time></trkpt><trkpt lat="39.82761809251086" lon="9.441466393123976"><ele>954.0</ele><time>2026-04-29T07:58:55.932Z</time></trkpt><trkpt lat="39.82751793506915" lon="9.4414810194458"><ele>954.0</ele><time>2026-04-29T07:58:56.932Z</time></trkpt><trkpt lat="39.82743192432948" lon="9.441490871466884"><ele>956.1666666666666</ele><time>2026-04-29T07:58:57.932Z</time></trkpt><trkpt lat="39.827343325637564" lon="9.44150647605802"><ele>958.3333333333333</ele><time>2026-04-29T07:58:58.932Z</time></trkpt><trkpt lat="39.82726267930602" lon="9.441501269589592"><ele>960.5</ele><time>2026-04-29T07:58:59.933Z</time></trkpt><trkpt lat="39.827191891514744" lon="9.441484630118266"><ele>962.6666666666666</ele><time>2026-04-29T07:59:00.932Z</time></trkpt><trkpt lat="39.82712600123426" lon="9.441464373782953"><ele>964.8333333333333</ele><time>2026-04-29T07:59:01.932Z</time></trkpt><trkpt lat="39.827014422599824" lon="9.441416196343553"><ele>967.0</ele><time>2026-04-29T07:59:03.933Z</time></trkpt><trkpt lat="39.826950307789424" lon="9.441438346754545"><ele>967.0</ele><time>2026-04-29T07:59:05.933Z</time></trkpt><trkpt lat="39.82685030967293" lon="9.441542686311635"><ele>967.0</ele><time>2026-04-29T07:59:07.932Z</time></trkpt><trkpt lat="39.82679372921247" lon="9.441624296813245"><ele>967.0</ele><time>2026-04-29T07:59:08.932Z</time></trkpt><trkpt lat="39.82673117433995" lon="9.441718268755109"><ele>967.0</ele><time>2026-04-29T07:59:10.932Z</time></trkpt><trkpt lat="39.82666927889764" lon="9.441690761032648"><ele>967.0</ele><time>2026-04-29T07:59:13.932Z</time></trkpt><trkpt lat="39.826644457742525" lon="9.441592429179066"><ele>964.4999999999999</ele><time>2026-04-29T07:59:16.932Z</time></trkpt><trkpt lat="39.8266191062471" lon="9.441508712863568"><ele>962.0</ele><time>2026-04-29T07:59:18.932Z</time></trkpt><trkpt lat="39.82656832877448" lon="9.441403632005132"><ele>959.5</ele><time>2026-04-29T07:59:20.932Z</time></trkpt><trkpt lat="39.82653406544887" lon="9.441273513480402"><ele>957.0</ele><time>2026-04-29T07:59:22.932Z</time></trkpt><trkpt lat="39.826511048625306" lon="9.441139158220718"><ele>954.4999999999999</ele><time>2026-04-29T07:59:24.932Z</time></trkpt><trkpt lat="39.82649686543878" lon="9.441055576934446"><ele>952.0</ele><time>2026-04-29T07:59:26.932Z</time></trkpt><trkpt lat="39.826429340896155" lon="9.441014521150969"><ele>950.6666666666666</ele><time>2026-04-29T07:59:30.932Z</time></trkpt><trkpt lat="39.826348540765245" lon="9.441070834691327"><ele>949.3333333333333</ele><time>2026-04-29T07:59:33.932Z</time></trkpt><trkpt lat="39.82630143627704" lon="9.44115930206393"><ele>948.0</ele><time>2026-04-29T07:59:36.932Z</time></trkpt><trkpt lat="39.82622981311688" lon="9.441175990589327"><ele>946.6666666666667</ele><time>2026-04-29T07:59:39.932Z</time></trkpt><trkpt lat="39.826213041888956" lon="9.441077162838086"><ele>945.3333333333334</ele><time>2026-04-29T07:59:42.932Z</time></trkpt><trkpt lat="39.82621173201185" lon="9.440989433633089"><ele>944.0</ele><time>2026-04-29T07:59:44.932Z</time></trkpt><trkpt lat="39.826210409492816" lon="9.440892934439871"><ele>944.0000000000001</ele><time>2026-04-29T07:59:46.932Z</time></trkpt><trkpt lat="39.826229741866605" lon="9.440783051666546"><ele>944.0</ele><time>2026-04-29T07:59:48.932Z</time></trkpt><trkpt lat="39.826271809650706" lon="9.440685081840655"><ele>944.0</ele><time>2026-04-29T07:59:50.932Z</time></trkpt><trkpt lat="39.82634347689285" lon="9.440573494516542"><ele>944.0</ele><time>2026-04-29T07:59:52.932Z</time></trkpt><trkpt lat="39.82639836702549" lon="9.440507334871095"><ele>944.0000000000001</ele><time>2026-04-29T07:59:53.932Z</time></trkpt><trkpt lat="39.82644538636059" lon="9.440431288799955"><ele>944.0</ele><time>2026-04-29T07:59:54.932Z</time></trkpt><trkpt lat="39.826509325743" lon="9.440358788582452"><ele>941.5000000000001</ele><time>2026-04-29T07:59:55.932Z</time></trkpt><trkpt lat="39.826586297857595" lon="9.440293175146781"><ele>939.0</ele><time>2026-04-29T07:59:56.931Z</time></trkpt><trkpt lat="39.82664740509726" lon="9.440256347952092"><ele>936.5</ele><time>2026-04-29T07:59:57.931Z</time></trkpt><trkpt lat="39.82671710811456" lon="9.440225299679637"><ele>934.0</ele><time>2026-04-29T07:59:58.931Z</time></trkpt><trkpt lat="39.826812520108135" lon="9.440152041926906"><ele>931.5000000000001</ele><time>2026-04-29T08:00:00.931Z</time></trkpt><trkpt lat="39.826873567402785" lon="9.440066988692893"><ele>929.0</ele><time>2026-04-29T08:00:01.931Z</time></trkpt><trkpt lat="39.82693655770145" lon="9.439996778805076"><ele>928.1666666666667</ele><time>2026-04-29T08:00:02.931Z</time></trkpt><trkpt lat="39.82700392033741" lon="9.439927501438552"><ele>927.3333333333334</ele><time>2026-04-29T08:00:03.931Z</time></trkpt><trkpt lat="39.82705693564657" lon="9.439850524173035"><ele>926.5</ele><time>2026-04-29T08:00:04.931Z</time></trkpt><trkpt lat="39.8271049610366" lon="9.439775260537855"><ele>925.6666666666667</ele><time>2026-04-29T08:00:05.931Z</time></trkpt><trkpt lat="39.82715263776612" lon="9.43967278785671"><ele>924.8333333333334</ele><time>2026-04-29T08:00:06.931Z</time></trkpt><trkpt lat="39.82720751449758" lon="9.439584507570613"><ele>924.0</ele><time>2026-04-29T08:00:07.931Z</time></trkpt><trkpt lat="39.827263144810566" lon="9.439492483853495"><ele>923.0</ele><time>2026-04-29T08:00:08.931Z</time></trkpt><trkpt lat="39.82732242606545" lon="9.439412566688812"><ele>922.0</ele><time>2026-04-29T08:00:09.931Z</time></trkpt><trkpt lat="39.827365857305935" lon="9.439341755358845"><ele>921.0</ele><time>2026-04-29T08:00:10.931Z</time></trkpt><trkpt lat="39.827425870069426" lon="9.439281961351615"><ele>920.0</ele><time>2026-04-29T08:00:11.931Z</time></trkpt><trkpt lat="39.82749368015379" lon="9.439223274715502"><ele>919.0</ele><time>2026-04-29T08:00:12.931Z</time></trkpt><trkpt lat="39.82754099467763" lon="9.43916345250777"><ele>918.0</ele><time>2026-04-29T08:00:13.931Z</time></trkpt><trkpt lat="39.82759949972384" lon="9.439112768033446"><ele>917.0</ele><time>2026-04-29T08:00:14.931Z</time></trkpt><trkpt lat="39.82765735647946" lon="9.439071603870959"><ele>917.0000000000001</ele><time>2026-04-29T08:00:15.931Z</time></trkpt><trkpt lat="39.82772964982141" lon="9.439001449088362"><ele>917.0</ele><time>2026-04-29T08:00:17.931Z</time></trkpt><trkpt lat="39.827706474825725" lon="9.438913728506774"><ele>917.0</ele><time>2026-04-29T08:00:20.931Z</time></trkpt><trkpt lat="39.82762543945251" lon="9.43888353826686"><ele>917.0</ele><time>2026-04-29T08:00:22.931Z</time></trkpt><trkpt lat="39.82755227772533" lon="9.438871440332603"><ele>917.0000000000001</ele><time>2026-04-29T08:00:23.931Z</time></trkpt><trkpt lat="39.82745042233598" lon="9.438882110827093"><ele>917.0</ele><time>2026-04-29T08:00:24.931Z</time></trkpt><trkpt lat="39.82734796542907" lon="9.438894419537434"><ele>917.0</ele><time>2026-04-29T08:00:25.931Z</time></trkpt><trkpt lat="39.827248801433875" lon="9.438897445190406"><ele>917.0</ele><time>2026-04-29T08:00:26.931Z</time></trkpt><trkpt lat="39.82716176127495" lon="9.438892279755411"><ele>917.0</ele><time>2026-04-29T08:00:27.931Z</time></trkpt><trkpt lat="39.827075969916315" lon="9.438893646672845"><ele>917.0</ele><time>2026-04-29T08:00:28.931Z</time></trkpt><trkpt lat="39.826964744451686" lon="9.43888221986718"><ele>917.0</ele><time>2026-04-29T08:00:29.931Z</time></trkpt><trkpt lat="39.82685588710303" lon="9.438870582663808"><ele>917.2</ele><time>2026-04-29T08:00:30.931Z</time></trkpt><trkpt lat="39.82675892831506" lon="9.438864641078712"><ele>917.4000000000001</ele><time>2026-04-29T08:00:31.931Z</time></trkpt><trkpt lat="39.82666119237104" lon="9.438884298872145"><ele>917.5999999999999</ele><time>2026-04-29T08:00:32.931Z</time></trkpt><trkpt lat="39.82657509862505" lon="9.438870850249778"><ele>917.8</ele><time>2026-04-29T08:00:33.931Z</time></trkpt><trkpt lat="39.82647594053238" lon="9.438872958555944"><ele>918.0</ele><time>2026-04-29T08:00:34.931Z</time></trkpt><trkpt lat="39.82638303002764" lon="9.438876102096193"><ele>918.0</ele><time>2026-04-29T08:00:35.931Z</time></trkpt><trkpt lat="39.826290012633685" lon="9.438893397257313"><ele>918.0</ele><time>2026-04-29T08:00:36.931Z</time></trkpt><trkpt lat="39.826210800507916" lon="9.438922481102782"><ele>918.0</ele><time>2026-04-29T08:00:37.931Z</time></trkpt><trkpt lat="39.82613359709306" lon="9.438953559377792"><ele>918.0</ele><time>2026-04-29T08:00:38.931Z</time></trkpt><trkpt lat="39.82604191557576" lon="9.438972957800278"><ele>918.0</ele><time>2026-04-29T08:00:39.931Z</time></trkpt><trkpt lat="39.825972048785154" lon="9.438988585793558"><ele>918.0</ele><time>2026-04-29T08:00:40.931Z</time></trkpt><trkpt lat="39.825887930459764" lon="9.438968812593071"><ele>917.8333333333334</ele><time>2026-04-29T08:00:42.931Z</time></trkpt><trkpt lat="39.82585085183975" lon="9.438871284645614"><ele>917.6666666666667</ele><time>2026-04-29T08:00:44.931Z</time></trkpt><trkpt lat="39.825795890430435" lon="9.438761569536817"><ele>917.5</ele><time>2026-04-29T08:00:46.931Z</time></trkpt><trkpt lat="39.825744186883455" lon="9.43869921113245"><ele>917.3333333333334</ele><time>2026-04-29T08:00:47.931Z</time></trkpt><trkpt lat="39.82569631421481" lon="9.438636562332151"><ele>917.1666666666667</ele><time>2026-04-29T08:00:48.931Z</time></trkpt><trkpt lat="39.825648515187964" lon="9.43857135545661"><ele>917.0</ele><time>2026-04-29T08:00:49.931Z</time></trkpt><trkpt lat="39.82556457620694" lon="9.43847394789501"><ele>915.3333333333334</ele><time>2026-04-29T08:00:51.931Z</time></trkpt><trkpt lat="39.82552944968919" lon="9.438397053747604"><ele>913.6666666666667</ele><time>2026-04-29T08:00:52.931Z</time></trkpt><trkpt lat="39.82548984168683" lon="9.438327990251697"><ele>912.0</ele><time>2026-04-29T08:00:53.931Z</time></trkpt><trkpt lat="39.825443650153936" lon="9.438257892960007"><ele>910.3333333333333</ele><time>2026-04-29T08:00:54.931Z</time></trkpt><trkpt lat="39.82539776052502" lon="9.438158739344926"><ele>908.6666666666666</ele><time>2026-04-29T08:00:55.931Z</time></trkpt><trkpt lat="39.82536161514981" lon="9.438074274077415"><ele>907.0</ele><time>2026-04-29T08:00:56.931Z</time></trkpt><trkpt lat="39.825327355046554" lon="9.437951683607052"><ele>906.9999999999999</ele><time>2026-04-29T08:00:58.931Z</time></trkpt><trkpt lat="39.82533444239542" lon="9.437865025351385"><ele>907.0</ele><time>2026-04-29T08:01:00.931Z</time></trkpt><trkpt lat="39.82539356061336" lon="9.437816975082749"><ele>907.0</ele><time>2026-04-29T08:01:02.931Z</time></trkpt><trkpt lat="39.82545389898909" lon="9.437868990346226"><ele>907.0</ele><time>2026-04-29T08:01:04.93Z</time></trkpt><trkpt lat="39.82553743431984" lon="9.437943629894745"><ele>906.9999999999999</ele><time>2026-04-29T08:01:06.93Z</time></trkpt><trkpt lat="39.82562505511683" lon="9.438037855347762"><ele>907.0</ele><time>2026-04-29T08:01:08.931Z</time></trkpt><trkpt lat="39.82572374614846" lon="9.438105952671481"><ele>907.0</ele><time>2026-04-29T08:01:10.93Z</time></trkpt><trkpt lat="39.82581042439998" lon="9.438192727450318"><ele>907.0</ele><time>2026-04-29T08:01:12.93Z</time></trkpt><trkpt lat="39.82589918920043" lon="9.43825755053563"><ele>907.0</ele><time>2026-04-29T08:01:14.93Z</time></trkpt><trkpt lat="39.825987717680604" lon="9.438261393418063"><ele>907.0</ele><time>2026-04-29T08:01:16.93Z</time></trkpt><trkpt lat="39.82611101846647" lon="9.438255654356782"><ele>907.0</ele><time>2026-04-29T08:01:18.93Z</time></trkpt><trkpt lat="39.82617911313897" lon="9.438265605709613"><ele>905.4999999999999</ele><time>2026-04-29T08:01:19.93Z</time></trkpt><trkpt lat="39.826243890406225" lon="9.438282722597418"><ele>904.0</ele><time>2026-04-29T08:01:20.93Z</time></trkpt><trkpt lat="39.82635032365227" lon="9.438297560133957"><ele>902.5</ele><time>2026-04-29T08:01:22.93Z</time></trkpt><trkpt lat="39.82645623368309" lon="9.438268489666413"><ele>901.0</ele><time>2026-04-29T08:01:24.93Z</time></trkpt><trkpt lat="39.82653787739265" lon="9.438244584193601"><ele>899.4999999999999</ele><time>2026-04-29T08:01:25.93Z</time></trkpt><trkpt lat="39.82660941921651" lon="9.43822130509288"><ele>898.0</ele><time>2026-04-29T08:01:26.93Z</time></trkpt><trkpt lat="39.82670117338288" lon="9.438190939778972"><ele>897.9999999999999</ele><time>2026-04-29T08:01:27.93Z</time></trkpt><trkpt lat="39.82676940272499" lon="9.438161103838542"><ele>898.0</ele><time>2026-04-29T08:01:28.93Z</time></trkpt><trkpt lat="39.82683224004201" lon="9.438130355745571"><ele>898.0</ele><time>2026-04-29T08:01:29.93Z</time></trkpt><trkpt lat="39.826902500803676" lon="9.438085459347311"><ele>898.0</ele><time>2026-04-29T08:01:30.93Z</time></trkpt><trkpt lat="39.826974533363405" lon="9.438047959973968"><ele>897.9999999999999</ele><time>2026-04-29T08:01:31.93Z</time></trkpt><trkpt lat="39.827097410388255" lon="9.437978650010564"><ele>898.0</ele><time>2026-04-29T08:01:33.93Z</time></trkpt><trkpt lat="39.8271675964247" lon="9.43790507076018"><ele>896.8333333333333</ele><time>2026-04-29T08:01:34.93Z</time></trkpt><trkpt lat="39.82722528610495" lon="9.437852364358948"><ele>895.6666666666666</ele><time>2026-04-29T08:01:35.93Z</time></trkpt><trkpt lat="39.82728340871354" lon="9.43779028639362"><ele>894.5</ele><time>2026-04-29T08:01:36.93Z</time></trkpt><trkpt lat="39.82734439109916" lon="9.437689196138342"><ele>893.3333333333333</ele><time>2026-04-29T08:01:38.93Z</time></trkpt><trkpt lat="39.827393725898006" lon="9.437584568605821"><ele>892.1666666666666</ele><time>2026-04-29T08:01:40.93Z</time></trkpt><trkpt lat="39.827455233694046" lon="9.4375504476273"><ele>891.0</ele><time>2026-04-29T08:01:41.93Z</time></trkpt><trkpt lat="39.82751888888447" lon="9.43752486166272"><ele>891.0</ele><time>2026-04-29T08:01:42.93Z</time></trkpt><trkpt lat="39.82763669545922" lon="9.437485768494925"><ele>890.9999999999999</ele><time>2026-04-29T08:01:44.93Z</time></trkpt><trkpt lat="39.82770200996102" lon="9.437455954254856"><ele>890.9999999999999</ele><time>2026-04-29T08:01:45.93Z</time></trkpt><trkpt lat="39.82781530946285" lon="9.437424123669887"><ele>891.0</ele><time>2026-04-29T08:01:47.93Z</time></trkpt><trkpt lat="39.82788766484939" lon="9.437409958314602"><ele>891.0</ele><time>2026-04-29T08:01:48.93Z</time></trkpt><trkpt lat="39.827961948008884" lon="9.437379004610431"><ele>892.1999999999999</ele><time>2026-04-29T08:01:49.93Z</time></trkpt><trkpt lat="39.828037097888654" lon="9.43729549250248"><ele>893.3999999999999</ele><time>2026-04-29T08:01:51.93Z</time></trkpt><trkpt lat="39.8281190431723" lon="9.437158984085107"><ele>894.6</ele><time>2026-04-29T08:01:53.93Z</time></trkpt><trkpt lat="39.828149087367684" lon="9.437036766048324"><ele>895.8</ele><time>2026-04-29T08:01:55.93Z</time></trkpt><trkpt lat="39.82811813714894" lon="9.436959525080026"><ele>897.0</ele><time>2026-04-29T08:01:56.93Z</time></trkpt><trkpt lat="39.82804316826691" lon="9.43687959880112"><ele>899.2</ele><time>2026-04-29T08:01:58.93Z</time></trkpt><trkpt lat="39.82796588176502" lon="9.436785074329697"><ele>901.4000000000001</ele><time>2026-04-29T08:02:00.93Z</time></trkpt><trkpt lat="39.827877392049096" lon="9.436685105363791"><ele>903.5999999999999</ele><time>2026-04-29T08:02:02.93Z</time></trkpt><trkpt lat="39.827813003609904" lon="9.43663706805839"><ele>905.8</ele><time>2026-04-29T08:02:03.93Z</time></trkpt><trkpt lat="39.82772236334837" lon="9.436533257062585"><ele>908.0</ele><time>2026-04-29T08:02:05.93Z</time></trkpt><trkpt lat="39.827672882980266" lon="9.436473258144337"><ele>906.8</ele><time>2026-04-29T08:02:06.93Z</time></trkpt><trkpt lat="39.82761935338645" lon="9.436405615583045"><ele>905.5999999999999</ele><time>2026-04-29T08:02:07.93Z</time></trkpt><trkpt lat="39.827570342325636" lon="9.436331365235423"><ele>904.4000000000001</ele><time>2026-04-29T08:02:08.93Z</time></trkpt><trkpt lat="39.82751272710482" lon="9.436179986444284"><ele>903.2</ele><time>2026-04-29T08:02:10.93Z</time></trkpt><trkpt lat="39.82747248782357" lon="9.436049949623275"><ele>902.0</ele><time>2026-04-29T08:02:12.93Z</time></trkpt><trkpt lat="39.82742693690311" lon="9.435884224450545"><ele>904.3333333333334</ele><time>2026-04-29T08:02:14.93Z</time></trkpt><trkpt lat="39.82739803901587" lon="9.435806371979062"><ele>906.6666666666667</ele><time>2026-04-29T08:02:15.93Z</time></trkpt><trkpt lat="39.82737065571058" lon="9.435717619654149"><ele>909.0</ele><time>2026-04-29T08:02:16.929Z</time></trkpt><trkpt lat="39.827369716883446" lon="9.435629129843846"><ele>911.3333333333333</ele><time>2026-04-29T08:02:17.929Z</time></trkpt><trkpt lat="39.82738496606875" lon="9.435537693469792"><ele>913.6666666666666</ele><time>2026-04-29T08:02:18.929Z</time></trkpt><trkpt lat="39.827412932082005" lon="9.435445679258718"><ele>916.0</ele><time>2026-04-29T08:02:19.929Z</time></trkpt><trkpt lat="39.827469132338166" lon="9.435312328048022"><ele>916.0</ele><time>2026-04-29T08:02:21.929Z</time></trkpt><trkpt lat="39.82754465403296" lon="9.435164771418595"><ele>915.9999999999999</ele><time>2026-04-29T08:02:23.929Z</time></trkpt><trkpt lat="39.827571071991365" lon="9.4350803080795"><ele>915.9999999999999</ele><time>2026-04-29T08:02:24.929Z</time></trkpt><trkpt lat="39.82761134857985" lon="9.434980714043315"><ele>916.0</ele><time>2026-04-29T08:02:25.929Z</time></trkpt><trkpt lat="39.82764616697029" lon="9.434880355525932"><ele>916.0</ele><time>2026-04-29T08:02:26.929Z</time></trkpt><trkpt lat="39.82768207429826" lon="9.434772797543458"><ele>917.1666666666666</ele><time>2026-04-29T08:02:27.929Z</time></trkpt><trkpt lat="39.82771878587528" lon="9.43467324839376"><ele>918.3333333333333</ele><time>2026-04-29T08:02:28.929Z</time></trkpt><trkpt lat="39.82775189608824" lon="9.43459801608433"><ele>919.5</ele><time>2026-04-29T08:02:29.929Z</time></trkpt><trkpt lat="39.827794239465725" lon="9.434519475384665"><ele>920.6666666666667</ele><time>2026-04-29T08:02:30.929Z</time></trkpt><trkpt lat="39.827842895020055" lon="9.434431602716511"><ele>921.8333333333334</ele><time>2026-04-29T08:02:31.929Z</time></trkpt><trkpt lat="39.82789737279928" lon="9.43434944099502"><ele>923.0</ele><time>2026-04-29T08:02:32.929Z</time></trkpt><trkpt lat="39.827941439885045" lon="9.434266350033807"><ele>923.0000000000001</ele><time>2026-04-29T08:02:33.929Z</time></trkpt><trkpt lat="39.82799220914391" lon="9.434195283655095"><ele>923.0</ele><time>2026-04-29T08:02:34.929Z</time></trkpt><trkpt lat="39.82803582949297" lon="9.434096283286332"><ele>923.0</ele><time>2026-04-29T08:02:35.929Z</time></trkpt><trkpt lat="39.82806243320243" lon="9.434016765640747"><ele>923.0</ele><time>2026-04-29T08:02:36.929Z</time></trkpt><trkpt lat="39.8280741871355" lon="9.433905480011141"><ele>923.0000000000001</ele><time>2026-04-29T08:02:38.929Z</time></trkpt><trkpt lat="39.82801532179645" lon="9.433840822993961"><ele>923.0</ele><time>2026-04-29T08:02:40.929Z</time></trkpt><trkpt lat="39.82793922219725" lon="9.433756450840747"><ele>923.8333333333334</ele><time>2026-04-29T08:02:42.929Z</time></trkpt><trkpt lat="39.8278781874418" lon="9.433728902936574"><ele>924.6666666666667</ele><time>2026-04-29T08:02:43.929Z</time></trkpt><trkpt lat="39.82779432381227" lon="9.433635760671065"><ele>925.5</ele><time>2026-04-29T08:02:45.929Z</time></trkpt><trkpt lat="39.82774121391849" lon="9.433579875650523"><ele>926.3333333333333</ele><time>2026-04-29T08:02:46.929Z</time></trkpt><trkpt lat="39.827696141988724" lon="9.433521663276863"><ele>927.1666666666666</ele><time>2026-04-29T08:02:47.929Z</time></trkpt><trkpt lat="39.82764660590722" lon="9.433452439977781"><ele>928.0</ele><time>2026-04-29T08:02:48.929Z</time></trkpt><trkpt lat="39.82759134447355" lon="9.433389859099394"><ele>925.8</ele><time>2026-04-29T08:02:49.929Z</time></trkpt><trkpt lat="39.82750860125668" lon="9.433275506893704"><ele>923.5999999999999</ele><time>2026-04-29T08:02:51.929Z</time></trkpt><trkpt lat="39.82744214329959" lon="9.43315297505043"><ele>921.4000000000001</ele><time>2026-04-29T08:02:53.929Z</time></trkpt><trkpt lat="39.82739389224358" lon="9.433000656645147"><ele>919.2</ele><time>2026-04-29T08:02:55.929Z</time></trkpt><trkpt lat="39.82737885158392" lon="9.432917377061337"><ele>917.0</ele><time>2026-04-29T08:02:56.929Z</time></trkpt><trkpt lat="39.82736918585916" lon="9.432832006964597"><ele>917.0</ele><time>2026-04-29T08:02:57.929Z</time></trkpt><trkpt lat="39.8273750506128" lon="9.432676716650276"><ele>917.0</ele><time>2026-04-29T08:02:59.929Z</time></trkpt><trkpt lat="39.82740571523171" lon="9.4325186593389"><ele>917.0</ele><time>2026-04-29T08:03:01.929Z</time></trkpt><trkpt lat="39.827416928744974" lon="9.432417612486566"><ele>917.0</ele><time>2026-04-29T08:03:02.929Z</time></trkpt><trkpt lat="39.82743497833999" lon="9.432320793740754"><ele>917.0</ele><time>2026-04-29T08:03:03.929Z</time></trkpt><trkpt lat="39.827463247475514" lon="9.432218798741973"><ele>916.5000000000001</ele><time>2026-04-29T08:03:04.929Z</time></trkpt><trkpt lat="39.82748805166873" lon="9.432121793499181"><ele>916.0</ele><time>2026-04-29T08:03:05.928Z</time></trkpt><trkpt lat="39.8275189521069" lon="9.432021273747385"><ele>915.5</ele><time>2026-04-29T08:03:06.928Z</time></trkpt><trkpt lat="39.827544255443385" lon="9.431931749028571"><ele>915.0</ele><time>2026-04-29T08:03:07.928Z</time></trkpt><trkpt lat="39.82756574820834" lon="9.431845904626467"><ele>914.5000000000001</ele><time>2026-04-29T08:03:08.928Z</time></trkpt><trkpt lat="39.82759006260267" lon="9.431754961296091"><ele>914.0</ele><time>2026-04-29T08:03:09.928Z</time></trkpt><trkpt lat="39.82761851799346" lon="9.431656516363756"><ele>916.0000000000001</ele><time>2026-04-29T08:03:10.928Z</time></trkpt><trkpt lat="39.82765211096282" lon="9.431561604378082"><ele>918.0</ele><time>2026-04-29T08:03:11.929Z</time></trkpt><trkpt lat="39.82767983240937" lon="9.431464447625077"><ele>920.0</ele><time>2026-04-29T08:03:12.928Z</time></trkpt><trkpt lat="39.82770810816409" lon="9.431375092565633"><ele>922.0</ele><time>2026-04-29T08:03:13.928Z</time></trkpt><trkpt lat="39.82772768938649" lon="9.431290305810077"><ele>924.0000000000001</ele><time>2026-04-29T08:03:14.928Z</time></trkpt><trkpt lat="39.827770484017414" lon="9.431193703844134"><ele>926.0</ele><time>2026-04-29T08:03:15.928Z</time></trkpt><trkpt lat="39.82780966553286" lon="9.431109177540174"><ele>926.0000000000001</ele><time>2026-04-29T08:03:16.928Z</time></trkpt><trkpt lat="39.82784706699055" lon="9.431026251480299"><ele>926.0</ele><time>2026-04-29T08:03:17.928Z</time></trkpt><trkpt lat="39.82787251165959" lon="9.430948377001991"><ele>926.0</ele><time>2026-04-29T08:03:18.928Z</time></trkpt><trkpt lat="39.82791058813985" lon="9.430865004816232"><ele>926.0</ele><time>2026-04-29T08:03:19.928Z</time></trkpt><trkpt lat="39.82795743461858" lon="9.430784467023605"><ele>926.0000000000001</ele><time>2026-04-29T08:03:20.928Z</time></trkpt><trkpt lat="39.82800099201267" lon="9.430699276009767"><ele>926.0</ele><time>2026-04-29T08:03:21.928Z</time></trkpt><trkpt lat="39.828054640213956" lon="9.430617977044024"><ele>926.0000000000001</ele><time>2026-04-29T08:03:22.928Z</time></trkpt><trkpt lat="39.828102333988234" lon="9.430527423210327"><ele>926.0</ele><time>2026-04-29T08:03:23.928Z</time></trkpt><trkpt lat="39.82815388376936" lon="9.430456551758041"><ele>926.0</ele><time>2026-04-29T08:03:24.928Z</time></trkpt><trkpt lat="39.82819082666251" lon="9.430382874889903"><ele>926.0</ele><time>2026-04-29T08:03:25.928Z</time></trkpt><trkpt lat="39.82823089261938" lon="9.430295162205866"><ele>926.0000000000001</ele><time>2026-04-29T08:03:26.928Z</time></trkpt><trkpt lat="39.82826296148565" lon="9.430212225889761"><ele>926.0</ele><time>2026-04-29T08:03:27.928Z</time></trkpt><trkpt lat="39.82830682291841" lon="9.430130368080107"><ele>926.1666666666667</ele><time>2026-04-29T08:03:28.928Z</time></trkpt><trkpt lat="39.8283392509025" lon="9.430037241174984"><ele>926.3333333333334</ele><time>2026-04-29T08:03:29.928Z</time></trkpt><trkpt lat="39.82836311005569" lon="9.429955624186478"><ele>926.5</ele><time>2026-04-29T08:03:30.928Z</time></trkpt><trkpt lat="39.82838984331081" lon="9.429860316148615"><ele>926.6666666666667</ele><time>2026-04-29T08:03:31.928Z</time></trkpt><trkpt lat="39.82840259253201" lon="9.429770972196687"><ele>926.8333333333334</ele><time>2026-04-29T08:03:32.928Z</time></trkpt><trkpt lat="39.828399109134274" lon="9.42963025788835"><ele>927.0</ele><time>2026-04-29T08:03:34.928Z</time></trkpt><trkpt lat="39.82836147454272" lon="9.429522850000359"><ele>927.0</ele><time>2026-04-29T08:03:36.928Z</time></trkpt><trkpt lat="39.82831699488763" lon="9.429462242230922"><ele>927.0</ele><time>2026-04-29T08:03:37.928Z</time></trkpt><trkpt lat="39.82823400078359" lon="9.42936868200415"><ele>927.0</ele><time>2026-04-29T08:03:39.928Z</time></trkpt><trkpt lat="39.82816582868931" lon="9.429327856034211"><ele>927.0</ele><time>2026-04-29T08:03:41.928Z</time></trkpt><trkpt lat="39.82809656746904" lon="9.429274611105114"><ele>927.0</ele><time>2026-04-29T08:03:43.928Z</time></trkpt><trkpt lat="39.82803647433527" lon="9.429244170742857"><ele>927.0</ele><time>2026-04-29T08:03:44.928Z</time></trkpt><trkpt lat="39.8279328050139" lon="9.42919255627243"><ele>927.0</ele><time>2026-04-29T08:03:46.928Z</time></trkpt><trkpt lat="39.8278739309782" lon="9.429148490556443"><ele>927.0</ele><time>2026-04-29T08:03:47.928Z</time></trkpt><trkpt lat="39.827802640234935" lon="9.429103021449045"><ele>927.0</ele><time>2026-04-29T08:03:48.928Z</time></trkpt><trkpt lat="39.827739637294094" lon="9.429069349448085"><ele>927.0</ele><time>2026-04-29T08:03:49.928Z</time></trkpt><trkpt lat="39.827663304384856" lon="9.429048623421302"><ele>927.0</ele><time>2026-04-29T08:03:50.928Z</time></trkpt><trkpt lat="39.827591215605246" lon="9.429023144129191"><ele>927.0</ele><time>2026-04-29T08:03:51.928Z</time></trkpt><trkpt lat="39.82750807632883" lon="9.428991843497627"><ele>927.3333333333334</ele><time>2026-04-29T08:03:52.928Z</time></trkpt><trkpt lat="39.827434911459456" lon="9.428975189159067"><ele>927.6666666666667</ele><time>2026-04-29T08:03:53.927Z</time></trkpt><trkpt lat="39.82736914995415" lon="9.428939985388537"><ele>928.0</ele><time>2026-04-29T08:03:54.927Z</time></trkpt><trkpt lat="39.82728811190339" lon="9.428902223093523"><ele>928.3333333333334</ele><time>2026-04-29T08:03:55.927Z</time></trkpt><trkpt lat="39.82720869109237" lon="9.42886613745731"><ele>928.6666666666667</ele><time>2026-04-29T08:03:56.927Z</time></trkpt><trkpt lat="39.82712966980566" lon="9.428835283979213"><ele>929.0</ele><time>2026-04-29T08:03:57.927Z</time></trkpt><trkpt lat="39.82706136637531" lon="9.42880374961037"><ele>931.1666666666667</ele><time>2026-04-29T08:03:58.927Z</time></trkpt><trkpt lat="39.82697528632134" lon="9.428778773341014"><ele>933.3333333333334</ele><time>2026-04-29T08:03:59.927Z</time></trkpt><trkpt lat="39.82689614876749" lon="9.42876712306178"><ele>935.5</ele><time>2026-04-29T08:04:00.927Z</time></trkpt><trkpt lat="39.82681279123472" lon="9.428773044461064"><ele>937.6666666666667</ele><time>2026-04-29T08:04:01.927Z</time></trkpt><trkpt lat="39.826730242955065" lon="9.428782664171841"><ele>939.8333333333334</ele><time>2026-04-29T08:04:02.927Z</time></trkpt><trkpt lat="39.826662220336424" lon="9.42878376859231"><ele>942.0</ele><time>2026-04-29T08:04:03.927Z</time></trkpt><trkpt lat="39.826582177774235" lon="9.4287894142329"><ele>942.1666666666666</ele><time>2026-04-29T08:04:04.927Z</time></trkpt><trkpt lat="39.82650793122557" lon="9.428781279155025"><ele>942.3333333333333</ele><time>2026-04-29T08:04:05.927Z</time></trkpt><trkpt lat="39.82643794516537" lon="9.42876494393882"><ele>942.5</ele><time>2026-04-29T08:04:06.927Z</time></trkpt><trkpt lat="39.82636967413604" lon="9.428745950720721"><ele>942.6666666666666</ele><time>2026-04-29T08:04:07.927Z</time></trkpt><trkpt lat="39.82627230250675" lon="9.428753344087777"><ele>942.8333333333333</ele><time>2026-04-29T08:04:09.927Z</time></trkpt><trkpt lat="39.8262196183449" lon="9.428827853911415"><ele>943.0</ele><time>2026-04-29T08:04:12.927Z</time></trkpt><trkpt lat="39.826155006317165" lon="9.428856788163502"><ele>941.8</ele><time>2026-04-29T08:04:17.927Z</time></trkpt><trkpt lat="39.82607967275933" lon="9.428833658666552"><ele>940.5999999999999</ele><time>2026-04-29T08:04:20.927Z</time></trkpt><trkpt lat="39.82598901086932" lon="9.428836099085073"><ele>939.4000000000001</ele><time>2026-04-29T08:04:22.927Z</time></trkpt><trkpt lat="39.82585902370447" lon="9.428869916496437"><ele>938.2</ele><time>2026-04-29T08:04:24.927Z</time></trkpt><trkpt lat="39.825785648318494" lon="9.4288922494029"><ele>937.0</ele><time>2026-04-29T08:04:25.927Z</time></trkpt><trkpt lat="39.82571290887755" lon="9.428934889348692"><ele>936.9999999999999</ele><time>2026-04-29T08:04:26.927Z</time></trkpt><trkpt lat="39.825640720806256" lon="9.428988318111687"><ele>937.0</ele><time>2026-04-29T08:04:27.927Z</time></trkpt><trkpt lat="39.82556042688661" lon="9.429048268253323"><ele>937.0</ele><time>2026-04-29T08:04:28.927Z</time></trkpt><trkpt lat="39.82549673694734" lon="9.42909332285182"><ele>937.0</ele><time>2026-04-29T08:04:29.927Z</time></trkpt><trkpt lat="39.825429160072076" lon="9.429133302300045"><ele>936.9999999999999</ele><time>2026-04-29T08:04:30.927Z</time></trkpt><trkpt lat="39.825365658809694" lon="9.429161043153291"><ele>937.0</ele><time>2026-04-29T08:04:31.927Z</time></trkpt><trkpt lat="39.82529331759204" lon="9.429188377535466"><ele>937.0</ele><time>2026-04-29T08:04:32.927Z</time></trkpt><trkpt lat="39.82517628656864" lon="9.429180790494256"><ele>937.0</ele><time>2026-04-29T08:04:34.927Z</time></trkpt><trkpt lat="39.82505444702295" lon="9.429149834547612"><ele>937.0</ele><time>2026-04-29T08:04:36.927Z</time></trkpt><trkpt lat="39.824981815313805" lon="9.429146688467533"><ele>937.0</ele><time>2026-04-29T08:04:37.927Z</time></trkpt><trkpt lat="39.8249195877639" lon="9.429210036432288"><ele>937.0</ele><time>2026-04-29T08:04:39.927Z</time></trkpt><trkpt lat="39.82486323193964" lon="9.429283469783165"><ele>938.4999999999999</ele><time>2026-04-29T08:04:40.927Z</time></trkpt><trkpt lat="39.82479214156446" lon="9.429339363749364"><ele>940.0</ele><time>2026-04-29T08:04:41.927Z</time></trkpt><trkpt lat="39.82473005101405" lon="9.429384440130526"><ele>941.5</ele><time>2026-04-29T08:04:42.927Z</time></trkpt><trkpt lat="39.82465203403944" lon="9.429422916268834"><ele>943.0</ele><time>2026-04-29T08:04:44.927Z</time></trkpt><trkpt lat="39.82457587959844" lon="9.429448447984978"><ele>944.4999999999999</ele><time>2026-04-29T08:04:46.927Z</time></trkpt><trkpt lat="39.82451260826606" lon="9.429447667754838"><ele>946.0</ele><time>2026-04-29T08:04:48.927Z</time></trkpt><trkpt lat="39.82439736744119" lon="9.429504386093926"><ele>945.9999999999999</ele><time>2026-04-29T08:04:50.927Z</time></trkpt><trkpt lat="39.82432682327009" lon="9.429528532465293"><ele>946.0</ele><time>2026-04-29T08:04:51.927Z</time></trkpt><trkpt lat="39.82425759270885" lon="9.429546204441607"><ele>946.0</ele><time>2026-04-29T08:04:52.927Z</time></trkpt><trkpt lat="39.82418875232601" lon="9.429546302549605"><ele>946.0</ele><time>2026-04-29T08:04:53.927Z</time></trkpt><trkpt lat="39.82411320273891" lon="9.429552528955456"><ele>945.9999999999999</ele><time>2026-04-29T08:04:54.927Z</time></trkpt><trkpt lat="39.82399382680328" lon="9.429590745755078"><ele>946.0</ele><time>2026-04-29T08:04:56.927Z</time></trkpt><trkpt lat="39.82388627709613" lon="9.429654599812652"><ele>947.0</ele><time>2026-04-29T08:04:58.927Z</time></trkpt><trkpt lat="39.823821090733986" lon="9.42967664372513"><ele>947.9999999999999</ele><time>2026-04-29T08:04:59.927Z</time></trkpt><trkpt lat="39.823691165786144" lon="9.429668290373298"><ele>948.9999999999999</ele><time>2026-04-29T08:05:01.927Z</time></trkpt><trkpt lat="39.82362614621684" lon="9.429641699526373"><ele>950.0</ele><time>2026-04-29T08:05:02.927Z</time></trkpt><trkpt lat="39.82351380165609" lon="9.429605066314286"><ele>951.0</ele><time>2026-04-29T08:05:04.927Z</time></trkpt><trkpt lat="39.82339131888368" lon="9.429562773215256"><ele>951.0</ele><time>2026-04-29T08:05:06.927Z</time></trkpt><trkpt lat="39.82332113765144" lon="9.42955591256146"><ele>951.0</ele><time>2026-04-29T08:05:07.927Z</time></trkpt><trkpt lat="39.82319987254286" lon="9.42958145776933"><ele>951.0</ele><time>2026-04-29T08:05:09.927Z</time></trkpt><trkpt lat="39.82311809080531" lon="9.429592079553489"><ele>951.0</ele><time>2026-04-29T08:05:10.927Z</time></trkpt><trkpt lat="39.82303401562763" lon="9.429617295692783"><ele>951.0</ele><time>2026-04-29T08:05:11.926Z</time></trkpt><trkpt lat="39.822952396940735" lon="9.429651762204326"><ele>951.0</ele><time>2026-04-29T08:05:12.925Z</time></trkpt><trkpt lat="39.82289238946482" lon="9.429685411470382"><ele>949.0</ele><time>2026-04-29T08:05:13.925Z</time></trkpt><trkpt lat="39.82279341058113" lon="9.429689577897335"><ele>947.0</ele><time>2026-04-29T08:05:15.926Z</time></trkpt><trkpt lat="39.822706743204066" lon="9.429703543079112"><ele>945.0</ele><time>2026-04-29T08:05:17.926Z</time></trkpt><trkpt lat="39.822648561153116" lon="9.429747381669975"><ele>943.0</ele><time>2026-04-29T08:05:23.926Z</time></trkpt><trkpt lat="39.82258131100785" lon="9.429745131186587"><ele>941.0</ele><time>2026-04-29T08:05:45.926Z</time></trkpt><trkpt lat="39.822507179083" lon="9.429768027365494"><ele>939.0</ele><time>2026-04-29T08:06:21.926Z</time></trkpt><trkpt lat="39.82242618571052" lon="9.429790440846435"><ele>939.0</ele><time>2026-04-29T08:06:29.926Z</time></trkpt><trkpt lat="39.82235502258974" lon="9.429802607022653"><ele>939.0</ele><time>2026-04-29T08:06:31.926Z</time></trkpt><trkpt lat="39.82225923310366" lon="9.42982900985354"><ele>939.0</ele><time>2026-04-29T08:06:33.926Z</time></trkpt><trkpt lat="39.8221434024176" lon="9.429826651150867"><ele>939.0</ele><time>2026-04-29T08:06:35.926Z</time></trkpt><trkpt lat="39.82207472821932" lon="9.429852503940547"><ele>939.0</ele><time>2026-04-29T08:06:36.926Z</time></trkpt><trkpt lat="39.82200579424132" lon="9.42986195615809"><ele>939.0</ele><time>2026-04-29T08:06:37.926Z</time></trkpt><trkpt lat="39.82194166740695" lon="9.429868783831527"><ele>939.0</ele><time>2026-04-29T08:06:38.926Z</time></trkpt><trkpt lat="39.8218784812814" lon="9.429880448431845"><ele>939.0</ele><time>2026-04-29T08:06:39.926Z</time></trkpt><trkpt lat="39.82176976099359" lon="9.429910455194753"><ele>939.0</ele><time>2026-04-29T08:06:41.926Z</time></trkpt><trkpt lat="39.821703138474305" lon="9.429942708169245"><ele>939.0</ele><time>2026-04-29T08:06:43.926Z</time></trkpt><trkpt lat="39.82162128973164" lon="9.429963776275175"><ele>939.0</ele><time>2026-04-29T08:06:45.926Z</time></trkpt><trkpt lat="39.82150782470312" lon="9.429989703264747"><ele>939.0</ele><time>2026-04-29T08:06:47.926Z</time></trkpt><trkpt lat="39.82144197058022" lon="9.430013308699618"><ele>938.6666666666666</ele><time>2026-04-29T08:06:48.926Z</time></trkpt><trkpt lat="39.82135711289306" lon="9.430003613877517"><ele>938.3333333333333</ele><time>2026-04-29T08:06:50.926Z</time></trkpt><trkpt lat="39.82127899414528" lon="9.42994797392041"><ele>938.0</ele><time>2026-04-29T08:06:52.925Z</time></trkpt><trkpt lat="39.82118248913491" lon="9.429884133761046"><ele>937.6666666666666</ele><time>2026-04-29T08:06:54.925Z</time></trkpt><trkpt lat="39.82111301596389" lon="9.429903598506826"><ele>937.3333333333333</ele><time>2026-04-29T08:06:58.925Z</time></trkpt><trkpt lat="39.82109148478153" lon="9.430006975074772"><ele>937.0</ele><time>2026-04-29T08:07:00.925Z</time></trkpt><trkpt lat="39.821041025391985" lon="9.430113438502623"><ele>937.0</ele><time>2026-04-29T08:07:02.925Z</time></trkpt><trkpt lat="39.82099942684565" lon="9.430175442156154"><ele>937.0</ele><time>2026-04-29T08:07:04.925Z</time></trkpt><trkpt lat="39.8209494260681" lon="9.430250821993342"><ele>937.0</ele><time>2026-04-29T08:07:06.925Z</time></trkpt><trkpt lat="39.82089876147295" lon="9.430311624012123"><ele>937.0</ele><time>2026-04-29T08:07:08.925Z</time></trkpt><trkpt lat="39.82086423028884" lon="9.430398804631372"><ele>937.0</ele><time>2026-04-29T08:07:12.925Z</time></trkpt><trkpt lat="39.820886345895296" lon="9.430493805027723"><ele>937.0</ele><time>2026-04-29T08:07:16.925Z</time></trkpt><trkpt lat="39.82090854322799" lon="9.430578849346427"><ele>937.0</ele><time>2026-04-29T08:07:18.924Z</time></trkpt><trkpt lat="39.82088455293169" lon="9.430678811725054"><ele>933.1666666666666</ele><time>2026-04-29T08:07:21.923Z</time></trkpt><trkpt lat="39.820915931448525" lon="9.43075591938515"><ele>929.3333333333333</ele><time>2026-04-29T08:07:23.924Z</time></trkpt><trkpt lat="39.820949557304104" lon="9.430854255875387"><ele>925.5</ele><time>2026-04-29T08:07:26.924Z</time></trkpt><trkpt lat="39.820948347131754" lon="9.430952555767805"><ele>921.6666666666667</ele><time>2026-04-29T08:07:30.923Z</time></trkpt><trkpt lat="39.820907590631236" lon="9.431017974529238"><ele>917.8333333333334</ele><time>2026-04-29T08:08:05.923Z</time></trkpt><trkpt lat="39.82084562128598" lon="9.431046146399035"><ele>914.0</ele><time>2026-04-29T08:08:07.923Z</time></trkpt><trkpt lat="39.82074767618814" lon="9.431053322685793"><ele>914.0000000000001</ele><time>2026-04-29T08:08:10.923Z</time></trkpt><trkpt lat="39.82066126266017" lon="9.431091230099522"><ele>914.0</ele><time>2026-04-29T08:08:13.923Z</time></trkpt><trkpt lat="39.820591267081085" lon="9.431119409199999"><ele>914.0000000000001</ele><time>2026-04-29T08:08:15.923Z</time></trkpt><trkpt lat="39.82052579351822" lon="9.431121140850065"><ele>914.0000000000001</ele><time>2026-04-29T08:08:17.923Z</time></trkpt><trkpt lat="39.82046087408414" lon="9.431122655176264"><ele>914.0</ele><time>2026-04-29T08:08:19.923Z</time></trkpt><trkpt lat="39.820407805790666" lon="9.43106525695272"><ele>914.0000000000001</ele><time>2026-04-29T08:08:21.923Z</time></trkpt><trkpt lat="39.820341937796904" lon="9.431073259104139"><ele>914.0000000000001</ele><time>2026-04-29T08:08:25.923Z</time></trkpt><trkpt lat="39.82029656269234" lon="9.431164021088465"><ele>914.0000000000001</ele><time>2026-04-29T08:08:28.923Z</time></trkpt><trkpt lat="39.82024177104486" lon="9.431231049231053"><ele>914.0</ele><time>2026-04-29T08:08:30.923Z</time></trkpt><trkpt lat="39.8201381485782" lon="9.431285349722259"><ele>914.0</ele><time>2026-04-29T08:08:33.923Z</time></trkpt><trkpt lat="39.82006866435713" lon="9.431323094817035"><ele>914.0</ele><time>2026-04-29T08:08:35.923Z</time></trkpt><trkpt lat="39.81999047768749" lon="9.431331953148682"><ele>914.0000000000001</ele><time>2026-04-29T08:08:38.923Z</time></trkpt><trkpt lat="39.81997237059335" lon="9.431242828917823"><ele>914.0</ele><time>2026-04-29T08:08:45.923Z</time></trkpt><trkpt lat="39.81991889951927" lon="9.431167589250869"><ele>911.0000000000001</ele><time>2026-04-29T08:08:49.923Z</time></trkpt><trkpt lat="39.81982548367697" lon="9.431167382977232"><ele>908.0</ele><time>2026-04-29T08:08:52.923Z</time></trkpt><trkpt lat="39.819739784187036" lon="9.43115048312585"><ele>905.0</ele><time>2026-04-29T08:08:55.923Z</time></trkpt><trkpt lat="39.819640927906434" lon="9.431151177134613"><ele>902.0</ele><time>2026-04-29T08:08:58.923Z</time></trkpt><trkpt lat="39.81956165788201" lon="9.431143061609168"><ele>899.0000000000001</ele><time>2026-04-29T08:09:00.923Z</time></trkpt><trkpt lat="39.81949370207534" lon="9.431117966139627"><ele>896.0</ele><time>2026-04-29T08:09:02.923Z</time></trkpt><trkpt lat="39.819435545080935" lon="9.43106761089678"><ele>896.0</ele><time>2026-04-29T08:09:06.923Z</time></trkpt><trkpt lat="39.81946212613058" lon="9.430985302963867"><ele>896.0</ele><time>2026-04-29T08:09:09.923Z</time></trkpt><trkpt lat="39.81948382503017" lon="9.43090740678421"><ele>896.0</ele><time>2026-04-29T08:09:11.923Z</time></trkpt><trkpt lat="39.81950689190474" lon="9.430828244963957"><ele>896.0</ele><time>2026-04-29T08:09:13.923Z</time></trkpt><trkpt lat="39.81951295148914" lon="9.430742816727848"><ele>896.0</ele><time>2026-04-29T08:09:15.923Z</time></trkpt><trkpt lat="39.81950596211888" lon="9.430620022432187"><ele>896.0</ele><time>2026-04-29T08:09:18.923Z</time></trkpt><trkpt lat="39.819485085680384" lon="9.43052558572801"><ele>896.0</ele><time>2026-04-29T08:09:20.923Z</time></trkpt><trkpt lat="39.819456322381924" lon="9.430395590445778"><ele>897.0</ele><time>2026-04-29T08:09:22.922Z</time></trkpt><trkpt lat="39.81944339494412" lon="9.430256235998193"><ele>897.9999999999999</ele><time>2026-04-29T08:09:24.922Z</time></trkpt><trkpt lat="39.81943345649562" lon="9.43010429819513"><ele>898.9999999999999</ele><time>2026-04-29T08:09:26.921Z</time></trkpt><trkpt lat="39.81938400725794" lon="9.430028913296368"><ele>900.0</ele><time>2026-04-29T08:09:29.921Z</time></trkpt><trkpt lat="39.81932656097379" lon="9.430109330214586"><ele>901.0</ele><time>2026-04-29T08:09:33.922Z</time></trkpt><trkpt lat="39.81928910880213" lon="9.430211272248535"><ele>895.0</ele><time>2026-04-29T08:09:35.921Z</time></trkpt><trkpt lat="39.81922569258662" lon="9.430292691322235"><ele>888.9999999999999</ele><time>2026-04-29T08:09:37.921Z</time></trkpt><trkpt lat="39.81915368160274" lon="9.430351438922116"><ele>882.9999999999999</ele><time>2026-04-29T08:09:39.921Z</time></trkpt><trkpt lat="39.81908005595329" lon="9.430359431892995"><ele>877.0</ele><time>2026-04-29T08:09:41.921Z</time></trkpt><trkpt lat="39.819001958239234" lon="9.430260705801642"><ele>871.0</ele><time>2026-04-29T08:09:44.921Z</time></trkpt><trkpt lat="39.818955000538885" lon="9.430155861191139"><ele>870.9999999999999</ele><time>2026-04-29T08:09:46.921Z</time></trkpt><trkpt lat="39.818880096181424" lon="9.43006052240896"><ele>871.0</ele><time>2026-04-29T08:09:48.921Z</time></trkpt><trkpt lat="39.818819589232234" lon="9.430029753778962"><ele>871.0</ele><time>2026-04-29T08:09:50.921Z</time></trkpt><trkpt lat="39.8187480117214" lon="9.42996792355884"><ele>871.0</ele><time>2026-04-29T08:09:52.921Z</time></trkpt><trkpt lat="39.81870077938528" lon="9.429881300637028"><ele>870.9999999999999</ele><time>2026-04-29T08:09:54.921Z</time></trkpt><trkpt lat="39.81863458517888" lon="9.429764574837515"><ele>871.0</ele><time>2026-04-29T08:09:56.921Z</time></trkpt><trkpt lat="39.81857280147026" lon="9.429689678935773"><ele>872.9999999999999</ele><time>2026-04-29T08:09:58.921Z</time></trkpt><trkpt lat="39.81850158092965" lon="9.42963904487975"><ele>875.0</ele><time>2026-04-29T08:10:00.921Z</time></trkpt><trkpt lat="39.81843377434255" lon="9.429563065898957"><ele>877.0</ele><time>2026-04-29T08:10:03.921Z</time></trkpt><trkpt lat="39.81837788833783" lon="9.429520720400436"><ele>879.0</ele><time>2026-04-29T08:10:06.921Z</time></trkpt><trkpt lat="39.81831278591793" lon="9.4294450641636"><ele>880.9999999999999</ele><time>2026-04-29T08:10:09.921Z</time></trkpt><trkpt lat="39.818221472870235" lon="9.429393809213343"><ele>883.0</ele><time>2026-04-29T08:17:14.929Z</time></trkpt><trkpt lat="39.81815366174521" lon="9.42937814214109"><ele>879.4285714285714</ele><time>2026-04-29T08:20:06.924Z</time></trkpt><trkpt lat="39.81815438105555" lon="9.429295523613131"><ele>875.8571428571428</ele><time>2026-04-29T08:23:53.921Z</time></trkpt><trkpt lat="39.8180838082767" lon="9.429304770765583"><ele>872.2857142857142</ele><time>2026-04-29T08:24:12.919Z</time></trkpt><trkpt lat="39.81801962491637" lon="9.429287850958183"><ele>868.7142857142858</ele><time>2026-04-29T08:24:16.919Z</time></trkpt><trkpt lat="39.81795957040385" lon="9.429243984366018"><ele>865.1428571428571</ele><time>2026-04-29T08:24:19.919Z</time></trkpt><trkpt lat="39.81789568475092" lon="9.429172114651372"><ele>861.5714285714286</ele><time>2026-04-29T08:24:22.919Z</time></trkpt><trkpt lat="39.81783294894061" lon="9.429124509820864"><ele>858.0</ele><time>2026-04-29T08:24:24.919Z</time></trkpt><trkpt lat="39.81776649143305" lon="9.429089114271143"><ele>858.0</ele><time>2026-04-29T08:24:28.919Z</time></trkpt><trkpt lat="39.81770287644818" lon="9.42908969648296"><ele>858.0</ele><time>2026-04-29T08:24:30.919Z</time></trkpt><trkpt lat="39.81763133086932" lon="9.429098238662938"><ele>858.0</ele><time>2026-04-29T08:24:33.919Z</time></trkpt><trkpt lat="39.81756466616616" lon="9.429048900402824"><ele>858.0</ele><time>2026-04-29T08:24:36.919Z</time></trkpt><trkpt lat="39.81750312601261" lon="9.429006657317753"><ele>858.0</ele><time>2026-04-29T08:24:40.918Z</time></trkpt><trkpt lat="39.81741374622739" lon="9.429005635958953"><ele>858.0</ele><time>2026-04-29T08:24:56.918Z</time></trkpt><trkpt lat="39.8173920252964" lon="9.428919632742838"><ele>858.0</ele><time>2026-04-29T08:25:12.918Z</time></trkpt><trkpt lat="39.81734162100785" lon="9.428869011295445"><ele>857.1666666666666</ele><time>2026-04-29T08:25:54.918Z</time></trkpt><trkpt lat="39.817298139465045" lon="9.428809638045921"><ele>856.3333333333333</ele><time>2026-04-29T08:27:03.916Z</time></trkpt><trkpt lat="39.817216238708426" lon="9.42889170882747"><ele>855.5</ele><time>2026-04-29T08:29:07.901Z</time></trkpt><trkpt lat="39.817260252022294" lon="9.428740767027934"><ele>854.6666666666666</ele><time>2026-04-29T08:31:50.898Z</time></trkpt><trkpt lat="39.8171809683931" lon="9.428691406127093"><ele>853.8333333333333</ele><time>2026-04-29T08:31:58.897Z</time></trkpt><trkpt lat="39.81711949437387" lon="9.428646250398277"><ele>853.0</ele><time>2026-04-29T08:32:02.897Z</time></trkpt><trkpt lat="39.8170470855043" lon="9.428597724016246"><ele>853.0</ele><time>2026-04-29T08:32:05.897Z</time></trkpt><trkpt lat="39.81709315040759" lon="9.428523065010864"><ele>853.0</ele><time>2026-04-29T08:32:22.897Z</time></trkpt><trkpt lat="39.81708461301304" lon="9.428430857060455"><ele>853.0</ele><time>2026-04-29T08:32:24.897Z</time></trkpt><trkpt lat="39.817046345902185" lon="9.42831580589794"><ele>853.0</ele><time>2026-04-29T08:32:26.897Z</time></trkpt><trkpt lat="39.816992206811335" lon="9.428172038221497"><ele>853.0</ele><time>2026-04-29T08:32:28.896Z</time></trkpt><trkpt lat="39.81697874300912" lon="9.428054894837889"><ele>854.4</ele><time>2026-04-29T08:32:30.897Z</time></trkpt><trkpt lat="39.81698222454646" lon="9.427952716407537"><ele>855.8</ele><time>2026-04-29T08:32:32.896Z</time></trkpt><trkpt lat="39.81700132475777" lon="9.427794630659259"><ele>857.2</ele><time>2026-04-29T08:32:34.897Z</time></trkpt><trkpt lat="39.81703299719556" lon="9.42763609170788"><ele>858.6</ele><time>2026-04-29T08:32:36.896Z</time></trkpt><trkpt lat="39.817040256077895" lon="9.427547552847594"><ele>860.0</ele><time>2026-04-29T08:32:37.896Z</time></trkpt><trkpt lat="39.81702254116013" lon="9.427393072425414"><ele>860.0000000000001</ele><time>2026-04-29T08:32:39.896Z</time></trkpt><trkpt lat="39.817021402217506" lon="9.427311106745728"><ele>860.0</ele><time>2026-04-29T08:32:40.896Z</time></trkpt><trkpt lat="39.81701643435082" lon="9.42721930533694"><ele>860.0</ele><time>2026-04-29T08:32:41.896Z</time></trkpt><trkpt lat="39.817037267038806" lon="9.427060583760433"><ele>860.0</ele><time>2026-04-29T08:32:43.896Z</time></trkpt><trkpt lat="39.81707601493056" lon="9.42698197722636"><ele>860.0000000000001</ele><time>2026-04-29T08:32:44.896Z</time></trkpt><trkpt lat="39.81710768021471" lon="9.426899551397991"><ele>860.0</ele><time>2026-04-29T08:32:45.896Z</time></trkpt><trkpt lat="39.81715012551793" lon="9.426837924899779"><ele>858.3333333333334</ele><time>2026-04-29T08:32:46.896Z</time></trkpt><trkpt lat="39.817193993866624" lon="9.426758426492238"><ele>856.6666666666667</ele><time>2026-04-29T08:32:47.896Z</time></trkpt><trkpt lat="39.81723353726778" lon="9.426690048389949"><ele>855.0</ele><time>2026-04-29T08:32:48.896Z</time></trkpt><trkpt lat="39.81731023630677" lon="9.426593465519517"><ele>853.3333333333333</ele><time>2026-04-29T08:32:50.896Z</time></trkpt><trkpt lat="39.81734481689805" lon="9.426521018967117"><ele>851.6666666666666</ele><time>2026-04-29T08:32:51.896Z</time></trkpt><trkpt lat="39.81737422179168" lon="9.426433682147538"><ele>850.0</ele><time>2026-04-29T08:32:53.896Z</time></trkpt><trkpt lat="39.81740840439546" lon="9.426347015515619"><ele>850.8</ele><time>2026-04-29T08:32:57.896Z</time></trkpt><trkpt lat="39.81745226065369" lon="9.426270073730514"><ele>851.6</ele><time>2026-04-29T08:32:59.896Z</time></trkpt><trkpt lat="39.817543574349905" lon="9.426216706062657"><ele>852.4000000000001</ele><time>2026-04-29T08:33:01.896Z</time></trkpt><trkpt lat="39.81764362068689" lon="9.426154693291616"><ele>853.2</ele><time>2026-04-29T08:33:03.896Z</time></trkpt><trkpt lat="39.817711143666635" lon="9.426071482211256"><ele>854.0</ele><time>2026-04-29T08:33:05.896Z</time></trkpt><trkpt lat="39.81773111890611" lon="9.425980031651573"><ele>854.0</ele><time>2026-04-29T08:33:07.896Z</time></trkpt><trkpt lat="39.817731309150226" lon="9.425890935172339"><ele>854.0</ele><time>2026-04-29T08:33:09.896Z</time></trkpt><trkpt lat="39.81774690863099" lon="9.425810013414411"><ele>854.0</ele><time>2026-04-29T08:33:11.896Z</time></trkpt><trkpt lat="39.817759625044104" lon="9.425720076134281"><ele>854.0</ele><time>2026-04-29T08:33:13.896Z</time></trkpt><trkpt lat="39.81778621356845" lon="9.425602280939751"><ele>854.0</ele><time>2026-04-29T08:33:15.896Z</time></trkpt><trkpt lat="39.817788255878" lon="9.425507225730026"><ele>854.0</ele><time>2026-04-29T08:33:18.896Z</time></trkpt><trkpt lat="39.81774025547496" lon="9.425437303438892"><ele>854.0</ele><time>2026-04-29T08:33:20.896Z</time></trkpt><trkpt lat="39.81765493460346" lon="9.425375611367098"><ele>852.6666666666667</ele><time>2026-04-29T08:33:22.896Z</time></trkpt><trkpt lat="39.81759205048208" lon="9.425333258057586"><ele>851.3333333333334</ele><time>2026-04-29T08:33:25.896Z</time></trkpt><trkpt lat="39.81752059076834" lon="9.425286077644223"><ele>850.0</ele><time>2026-04-29T08:33:27.896Z</time></trkpt><trkpt lat="39.817409982436175" lon="9.425256942645282"><ele>848.6666666666667</ele><time>2026-04-29T08:33:29.896Z</time></trkpt><trkpt lat="39.81732492551661" lon="9.425233610559786"><ele>847.3333333333334</ele><time>2026-04-29T08:33:31.896Z</time></trkpt><trkpt lat="39.81723867590691" lon="9.425190925573988"><ele>846.0</ele><time>2026-04-29T08:33:33.896Z</time></trkpt><trkpt lat="39.81716294824745" lon="9.425163963937347"><ele>846.0</ele><time>2026-04-29T08:33:35.896Z</time></trkpt><trkpt lat="39.81708876547776" lon="9.425147903097685"><ele>846.0</ele><time>2026-04-29T08:33:37.896Z</time></trkpt><trkpt lat="39.81701365779373" lon="9.425115047734026"><ele>846.0</ele><time>2026-04-29T08:33:39.896Z</time></trkpt><trkpt lat="39.816937645381905" lon="9.425089439397237"><ele>846.0</ele><time>2026-04-29T08:33:41.896Z</time></trkpt><trkpt lat="39.816853176773506" lon="9.425079067814401"><ele>846.0</ele><time>2026-04-29T08:33:43.896Z</time></trkpt><trkpt lat="39.816760906390726" lon="9.425065731651012"><ele>846.0</ele><time>2026-04-29T08:33:45.896Z</time></trkpt><trkpt lat="39.8166941452989" lon="9.425057282752855"><ele>846.1999999999999</ele><time>2026-04-29T08:33:47.896Z</time></trkpt><trkpt lat="39.81663116068005" lon="9.425046450502043"><ele>846.4</ele><time>2026-04-29T08:33:49.896Z</time></trkpt><trkpt lat="39.81653722089476" lon="9.425030648216302"><ele>846.6</ele><time>2026-04-29T08:33:51.896Z</time></trkpt><trkpt lat="39.816438454793875" lon="9.42502650189386"><ele>846.8</ele><time>2026-04-29T08:33:53.896Z</time></trkpt><trkpt lat="39.816367672300046" lon="9.425013778883235"><ele>847.0</ele><time>2026-04-29T08:33:54.896Z</time></trkpt><trkpt lat="39.8162465698174" lon="9.424970395417668"><ele>846.9999999999999</ele><time>2026-04-29T08:33:56.896Z</time></trkpt><trkpt lat="39.816181828641895" lon="9.424955128475549"><ele>847.0</ele><time>2026-04-29T08:33:57.896Z</time></trkpt><trkpt lat="39.816106067685645" lon="9.42491078822102"><ele>847.0</ele><time>2026-04-29T08:33:59.896Z</time></trkpt><trkpt lat="39.816045780438536" lon="9.424882349475292"><ele>847.0</ele><time>2026-04-29T08:34:03.896Z</time></trkpt><trkpt lat="39.81597473379576" lon="9.42487971511347"><ele>846.9999999999999</ele><time>2026-04-29T08:34:23.896Z</time></trkpt><trkpt lat="39.815899608803846" lon="9.424859765749058"><ele>847.0</ele><time>2026-04-29T08:34:29.896Z</time></trkpt><trkpt lat="39.81581145050743" lon="9.424769060731553"><ele>846.6</ele><time>2026-04-29T08:34:31.896Z</time></trkpt><trkpt lat="39.81571168495437" lon="9.424675132944778"><ele>846.2</ele><time>2026-04-29T08:34:33.894Z</time></trkpt><trkpt lat="39.815596855688355" lon="9.424577029803732"><ele>845.8</ele><time>2026-04-29T08:34:35.893Z</time></trkpt><trkpt lat="39.8155426887979" lon="9.424533554213683"><ele>845.4</ele><time>2026-04-29T08:34:36.894Z</time></trkpt><trkpt lat="39.815473924129" lon="9.424491987460756"><ele>845.0</ele><time>2026-04-29T08:34:37.894Z</time></trkpt><trkpt lat="39.81541180563751" lon="9.424442249296224"><ele>845.5000000000001</ele><time>2026-04-29T08:34:38.894Z</time></trkpt><trkpt lat="39.815356416274355" lon="9.424393351008023"><ele>846.0</ele><time>2026-04-29T08:34:39.893Z</time></trkpt><trkpt lat="39.815328863546014" lon="9.424316671693957"><ele>846.5</ele><time>2026-04-29T08:34:40.894Z</time></trkpt><trkpt lat="39.81525033874755" lon="9.424226863511908"><ele>847.0</ele><time>2026-04-29T08:34:42.894Z</time></trkpt><trkpt lat="39.81518778192624" lon="9.42414035398063"><ele>847.5000000000001</ele><time>2026-04-29T08:34:44.893Z</time></trkpt><trkpt lat="39.81512249905714" lon="9.424049178417766"><ele>848.0</ele><time>2026-04-29T08:34:46.893Z</time></trkpt><trkpt lat="39.81504737431432" lon="9.423949928573995"><ele>848.0000000000001</ele><time>2026-04-29T08:34:48.893Z</time></trkpt><trkpt lat="39.814983301746764" lon="9.4238424182368"><ele>848.0</ele><time>2026-04-29T08:34:50.893Z</time></trkpt><trkpt lat="39.814947252785615" lon="9.423771428551625"><ele>848.0</ele><time>2026-04-29T08:34:51.893Z</time></trkpt><trkpt lat="39.81488303138002" lon="9.423655788109597"><ele>848.0</ele><time>2026-04-29T08:34:53.893Z</time></trkpt><trkpt lat="39.81484262726958" lon="9.423577123015761"><ele>848.0000000000001</ele><time>2026-04-29T08:34:55.893Z</time></trkpt><trkpt lat="39.814818757794704" lon="9.42349249528038"><ele>848.0</ele><time>2026-04-29T08:34:58.893Z</time></trkpt><trkpt lat="39.814740338667484" lon="9.42346847820487"><ele>848.3333333333334</ele><time>2026-04-29T08:35:02.893Z</time></trkpt><trkpt lat="39.81465207497473" lon="9.423493892367246"><ele>848.6666666666667</ele><time>2026-04-29T08:35:04.893Z</time></trkpt><trkpt lat="39.81456073118317" lon="9.423508090050037"><ele>849.0</ele><time>2026-04-29T08:35:06.893Z</time></trkpt><trkpt lat="39.81463059864031" lon="9.423512277801686"><ele>849.3333333333333</ele><time>2026-04-29T08:35:23.893Z</time></trkpt><trkpt lat="39.814715177292" lon="9.423487650715284"><ele>849.6666666666666</ele><time>2026-04-29T08:35:27.893Z</time></trkpt><trkpt lat="39.814789160724985" lon="9.423485360184497"><ele>850.0</ele><time>2026-04-29T08:35:31.893Z</time></trkpt><trkpt lat="39.81476482421838" lon="9.423405870922629"><ele>849.9999999999999</ele><time>2026-04-29T08:36:33.893Z</time></trkpt><trkpt lat="39.81470396253703" lon="9.42338427720769"><ele>850.0</ele><time>2026-04-29T08:36:35.893Z</time></trkpt><trkpt lat="39.814666847380536" lon="9.423310999492045"><ele>850.0</ele><time>2026-04-29T08:36:37.893Z</time></trkpt><trkpt lat="39.814642567386" lon="9.423196538473668"><ele>850.0</ele><time>2026-04-29T08:36:39.89Z</time></trkpt><trkpt lat="39.814636877248354" lon="9.423065947058863"><ele>849.9999999999999</ele><time>2026-04-29T08:36:41.89Z</time></trkpt><trkpt lat="39.81463963846245" lon="9.422911996184855"><ele>850.0</ele><time>2026-04-29T08:36:43.891Z</time></trkpt><trkpt lat="39.814641634161966" lon="9.422801888622406"><ele>849.5</ele><time>2026-04-29T08:36:45.891Z</time></trkpt><trkpt lat="39.81469493847832" lon="9.422684779555478"><ele>849.0</ele><time>2026-04-29T08:36:48.891Z</time></trkpt><trkpt lat="39.81477206577233" lon="9.422573717299587"><ele>848.5</ele><time>2026-04-29T08:36:50.891Z</time></trkpt><trkpt lat="39.814819398724026" lon="9.422437091165364"><ele>848.0</ele><time>2026-04-29T08:36:52.891Z</time></trkpt><trkpt lat="39.814846775275136" lon="9.42227940576042"><ele>848.0</ele><time>2026-04-29T08:36:54.891Z</time></trkpt><trkpt lat="39.81486524955676" lon="9.422192807457158"><ele>848.0</ele><time>2026-04-29T08:36:55.891Z</time></trkpt><trkpt lat="39.81488228942804" lon="9.422093249889706"><ele>848.0</ele><time>2026-04-29T08:36:56.891Z</time></trkpt><trkpt lat="39.81493150030693" lon="9.421959141003873"><ele>848.0</ele><time>2026-04-29T08:36:58.891Z</time></trkpt><trkpt lat="39.814938453810484" lon="9.421873476405848"><ele>848.0</ele><time>2026-04-29T08:36:59.891Z</time></trkpt><trkpt lat="39.81496010652372" lon="9.421696249465777"><ele>846.8571428571429</ele><time>2026-04-29T08:37:01.891Z</time></trkpt><trkpt lat="39.81495925059112" lon="9.42160792204467"><ele>845.7142857142857</ele><time>2026-04-29T08:37:02.891Z</time></trkpt><trkpt lat="39.81497195810387" lon="9.421514144685462"><ele>844.5714285714286</ele><time>2026-04-29T08:37:03.891Z</time></trkpt><trkpt lat="39.81497968028488" lon="9.421422104401671"><ele>843.4285714285714</ele><time>2026-04-29T08:37:04.891Z</time></trkpt><trkpt lat="39.81500340696405" lon="9.421341976438656"><ele>842.2857142857142</ele><time>2026-04-29T08:37:05.891Z</time></trkpt><trkpt lat="39.81503688740753" lon="9.421266984675492"><ele>841.1428571428571</ele><time>2026-04-29T08:37:06.891Z</time></trkpt><trkpt lat="39.81511506582614" lon="9.42119107771571"><ele>840.0</ele><time>2026-04-29T08:37:08.891Z</time></trkpt><trkpt lat="39.81524793927301" lon="9.42118008401115"><ele>838.5</ele><time>2026-04-29T08:37:10.891Z</time></trkpt><trkpt lat="39.815325763330904" lon="9.42118185934901"><ele>837.0</ele><time>2026-04-29T08:37:11.891Z</time></trkpt><trkpt lat="39.81541015987305" lon="9.421174827082982"><ele>835.5</ele><time>2026-04-29T08:37:12.891Z</time></trkpt><trkpt lat="39.815507590925115" lon="9.421143897663178"><ele>834.0</ele><time>2026-04-29T08:37:13.891Z</time></trkpt><trkpt lat="39.815600216461235" lon="9.421113441109348"><ele>832.5</ele><time>2026-04-29T08:37:14.891Z</time></trkpt><trkpt lat="39.815680888916525" lon="9.421089132016167"><ele>831.0</ele><time>2026-04-29T08:37:15.891Z</time></trkpt><trkpt lat="39.81575814952966" lon="9.421052058470101"><ele>831.0</ele><time>2026-04-29T08:37:16.891Z</time></trkpt><trkpt lat="39.81584289001484" lon="9.421031721279233"><ele>831.0</ele><time>2026-04-29T08:37:17.891Z</time></trkpt><trkpt lat="39.81592727111505" lon="9.421010921402988"><ele>831.0</ele><time>2026-04-29T08:37:18.891Z</time></trkpt><trkpt lat="39.81599835195613" lon="9.420992824554395"><ele>831.0</ele><time>2026-04-29T08:37:19.891Z</time></trkpt><trkpt lat="39.81607967684293" lon="9.420966497377027"><ele>831.0</ele><time>2026-04-29T08:37:21.891Z</time></trkpt><trkpt lat="39.81617327844318" lon="9.420955659378986"><ele>831.0</ele><time>2026-04-29T08:37:23.891Z</time></trkpt><trkpt lat="39.81629812596286" lon="9.420991663909671"><ele>831.0</ele><time>2026-04-29T08:37:25.891Z</time></trkpt><trkpt lat="39.81636902302839" lon="9.421008156190537"><ele>831.0</ele><time>2026-04-29T08:37:26.891Z</time></trkpt><trkpt lat="39.816437747241245" lon="9.421032138452478"><ele>831.0</ele><time>2026-04-29T08:37:27.891Z</time></trkpt><trkpt lat="39.816522136145004" lon="9.421070974700978"><ele>831.0</ele><time>2026-04-29T08:37:28.891Z</time></trkpt><trkpt lat="39.816601497915926" lon="9.421075762275766"><ele>831.0</ele><time>2026-04-29T08:37:29.891Z</time></trkpt><trkpt lat="39.8166767017557" lon="9.421073328599384"><ele>831.0</ele><time>2026-04-29T08:37:30.891Z</time></trkpt><trkpt lat="39.81674819900358" lon="9.421066932413073"><ele>831.0</ele><time>2026-04-29T08:37:31.891Z</time></trkpt><trkpt lat="39.81683347148029" lon="9.421062679270424"><ele>831.0</ele><time>2026-04-29T08:37:32.891Z</time></trkpt><trkpt lat="39.81696227731555" lon="9.42106294562092"><ele>831.0</ele><time>2026-04-29T08:37:34.891Z</time></trkpt><trkpt lat="39.8170595547052" lon="9.42106678358607"><ele>831.0</ele><time>2026-04-29T08:37:35.891Z</time></trkpt><trkpt lat="39.81713321503928" lon="9.421071195977545"><ele>831.0</ele><time>2026-04-29T08:37:36.89Z</time></trkpt><trkpt lat="39.81721712102354" lon="9.421069125524799"><ele>831.0</ele><time>2026-04-29T08:37:37.89Z</time></trkpt><trkpt lat="39.81730793601639" lon="9.421066650034836"><ele>831.0</ele><time>2026-04-29T08:37:38.89Z</time></trkpt><trkpt lat="39.817401400130485" lon="9.421049042899442"><ele>831.0</ele><time>2026-04-29T08:37:39.89Z</time></trkpt><trkpt lat="39.81748349757178" lon="9.421018233203506"><ele>831.0</ele><time>2026-04-29T08:37:40.89Z</time></trkpt><trkpt lat="39.817587911356334" lon="9.420972819853896"><ele>831.0</ele><time>2026-04-29T08:37:41.89Z</time></trkpt><trkpt lat="39.817688622873575" lon="9.420914444399047"><ele>831.5999999999999</ele><time>2026-04-29T08:37:42.89Z</time></trkpt><trkpt lat="39.81778858879932" lon="9.420854782775052"><ele>832.2</ele><time>2026-04-29T08:37:43.89Z</time></trkpt><trkpt lat="39.81789406489854" lon="9.420784106270538"><ele>832.8</ele><time>2026-04-29T08:37:44.89Z</time></trkpt><trkpt lat="39.817996742424555" lon="9.42072427088841"><ele>833.4000000000001</ele><time>2026-04-29T08:37:45.89Z</time></trkpt><trkpt lat="39.818077699169635" lon="9.420683899374183"><ele>834.0</ele><time>2026-04-29T08:37:46.89Z</time></trkpt><trkpt lat="39.81815736516822" lon="9.42065022355786"><ele>834.0</ele><time>2026-04-29T08:37:47.89Z</time></trkpt><trkpt lat="39.81824003071486" lon="9.420645448424269"><ele>834.0</ele><time>2026-04-29T08:37:48.89Z</time></trkpt><trkpt lat="39.818323819090885" lon="9.420666411570677"><ele>834.0</ele><time>2026-04-29T08:37:49.89Z</time></trkpt><trkpt lat="39.81841369930511" lon="9.420692602005918"><ele>834.0</ele><time>2026-04-29T08:37:50.89Z</time></trkpt><trkpt lat="39.81849034513391" lon="9.420736198716115"><ele>834.0</ele><time>2026-04-29T08:37:51.89Z</time></trkpt><trkpt lat="39.818560233117616" lon="9.42075894022616"><ele>834.0</ele><time>2026-04-29T08:37:52.89Z</time></trkpt><trkpt lat="39.818621038445364" lon="9.420788404610477"><ele>832.8000000000001</ele><time>2026-04-29T08:37:53.89Z</time></trkpt><trkpt lat="39.81869702951059" lon="9.420790593332077"><ele>831.6</ele><time>2026-04-29T08:37:54.89Z</time></trkpt><trkpt lat="39.8188017996574" lon="9.420785321736698"><ele>830.4</ele><time>2026-04-29T08:37:55.89Z</time></trkpt><trkpt lat="39.8189064234001" lon="9.420759987940727"><ele>829.2</ele><time>2026-04-29T08:37:56.89Z</time></trkpt><trkpt lat="39.81901139948015" lon="9.420774157423788"><ele>828.0</ele><time>2026-04-29T08:37:57.89Z</time></trkpt><trkpt lat="39.81912127841484" lon="9.420769479453817"><ele>828.0</ele><time>2026-04-29T08:37:58.89Z</time></trkpt><trkpt lat="39.81921460796708" lon="9.42079304185332"><ele>828.0</ele><time>2026-04-29T08:37:59.89Z</time></trkpt><trkpt lat="39.819315015460944" lon="9.420791307803293"><ele>828.0</ele><time>2026-04-29T08:38:00.89Z</time></trkpt><trkpt lat="39.81940510525757" lon="9.420806871098112"><ele>828.0</ele><time>2026-04-29T08:38:01.89Z</time></trkpt><trkpt lat="39.81950049136861" lon="9.42080652705217"><ele>828.0</ele><time>2026-04-29T08:38:02.89Z</time></trkpt><trkpt lat="39.81960675161703" lon="9.420795019447512"><ele>827.8</ele><time>2026-04-29T08:38:03.89Z</time></trkpt><trkpt lat="39.81972804682281" lon="9.420773413863788"><ele>827.5999999999999</ele><time>2026-04-29T08:38:04.89Z</time></trkpt><trkpt lat="39.81984524320243" lon="9.420748127953157"><ele>827.4000000000001</ele><time>2026-04-29T08:38:05.89Z</time></trkpt><trkpt lat="39.81994639929536" lon="9.420728554638957"><ele>827.2</ele><time>2026-04-29T08:38:06.89Z</time></trkpt><trkpt lat="39.82004155572191" lon="9.420712464792684"><ele>827.0</ele><time>2026-04-29T08:38:07.89Z</time></trkpt><trkpt lat="39.820128666181205" lon="9.42069773538166"><ele>825.8</ele><time>2026-04-29T08:38:08.89Z</time></trkpt><trkpt lat="39.82021719975117" lon="9.420666380404576"><ele>824.6</ele><time>2026-04-29T08:38:09.89Z</time></trkpt><trkpt lat="39.82029200741941" lon="9.420636124634951"><ele>823.4</ele><time>2026-04-29T08:38:10.89Z</time></trkpt><trkpt lat="39.82035246860266" lon="9.420596392532829"><ele>822.1999999999999</ele><time>2026-04-29T08:38:11.89Z</time></trkpt><trkpt lat="39.820438339082436" lon="9.42047247981431"><ele>821.0</ele><time>2026-04-29T08:38:13.89Z</time></trkpt><trkpt lat="39.82048893765021" lon="9.420373518844007"><ele>821.0</ele><time>2026-04-29T08:38:14.89Z</time></trkpt><trkpt lat="39.82055097883138" lon="9.42026000468908"><ele>821.0</ele><time>2026-04-29T08:38:15.89Z</time></trkpt><trkpt lat="39.82063151776677" lon="9.420173909719756"><ele>821.0</ele><time>2026-04-29T08:38:16.89Z</time></trkpt><trkpt lat="39.82069940619421" lon="9.420079353099695"><ele>821.0</ele><time>2026-04-29T08:38:17.89Z</time></trkpt><trkpt lat="39.82076340769361" lon="9.419984783427733"><ele>821.0</ele><time>2026-04-29T08:38:18.89Z</time></trkpt><trkpt lat="39.820837255410105" lon="9.419898872868938"><ele>821.0</ele><time>2026-04-29T08:38:19.89Z</time></trkpt><trkpt lat="39.820908260256495" lon="9.41981248865948"><ele>821.0</ele><time>2026-04-29T08:38:20.89Z</time></trkpt><trkpt lat="39.82097934404901" lon="9.419721075796277"><ele>821.0</ele><time>2026-04-29T08:38:21.89Z</time></trkpt><trkpt lat="39.821049134395075" lon="9.41962318379002"><ele>821.0</ele><time>2026-04-29T08:38:22.89Z</time></trkpt><trkpt lat="39.82111803209838" lon="9.419526731853127"><ele>821.0</ele><time>2026-04-29T08:38:23.89Z</time></trkpt><trkpt lat="39.821181662613796" lon="9.419433393806335"><ele>821.5999999999999</ele><time>2026-04-29T08:38:24.89Z</time></trkpt><trkpt lat="39.8212396858051" lon="9.419348336884136"><ele>822.2</ele><time>2026-04-29T08:38:25.89Z</time></trkpt><trkpt lat="39.82128870793828" lon="9.419253254722463"><ele>822.8</ele><time>2026-04-29T08:38:26.89Z</time></trkpt><trkpt lat="39.82133236725993" lon="9.419145935676957"><ele>823.4000000000001</ele><time>2026-04-29T08:38:27.89Z</time></trkpt><trkpt lat="39.821371478067945" lon="9.419032743519706"><ele>824.0</ele><time>2026-04-29T08:38:28.89Z</time></trkpt><trkpt lat="39.82142284957376" lon="9.418913179166006"><ele>821.2</ele><time>2026-04-29T08:38:29.89Z</time></trkpt><trkpt lat="39.82147977924531" lon="9.418792679325565"><ele>818.4000000000001</ele><time>2026-04-29T08:38:30.89Z</time></trkpt><trkpt lat="39.821536089067216" lon="9.41866845662358"><ele>815.6</ele><time>2026-04-29T08:38:31.89Z</time></trkpt><trkpt lat="39.82159142727832" lon="9.41854903269314"><ele>812.8</ele><time>2026-04-29T08:38:32.89Z</time></trkpt><trkpt lat="39.82164392417423" lon="9.418433043623349"><ele>810.0</ele><time>2026-04-29T08:38:33.89Z</time></trkpt><trkpt lat="39.82168314813403" lon="9.418324414446593"><ele>810.0</ele><time>2026-04-29T08:38:34.89Z</time></trkpt><trkpt lat="39.82172520829936" lon="9.418221855568977"><ele>810.0</ele><time>2026-04-29T08:38:35.89Z</time></trkpt><trkpt lat="39.82174799577502" lon="9.418117914884588"><ele>810.0</ele><time>2026-04-29T08:38:36.89Z</time></trkpt><trkpt lat="39.82176836076977" lon="9.418015473628778"><ele>810.0</ele><time>2026-04-29T08:38:37.89Z</time></trkpt><trkpt lat="39.82178367851609" lon="9.417898099520416"><ele>810.0</ele><time>2026-04-29T08:38:38.89Z</time></trkpt><trkpt lat="39.82179044263935" lon="9.417771752693593"><ele>810.0</ele><time>2026-04-29T08:38:39.89Z</time></trkpt><trkpt lat="39.82179579411399" lon="9.417641015278432"><ele>808.2</ele><time>2026-04-29T08:38:40.89Z</time></trkpt><trkpt lat="39.821807226250684" lon="9.417505252096651"><ele>806.4</ele><time>2026-04-29T08:38:41.89Z</time></trkpt><trkpt lat="39.82181940164525" lon="9.417383255118398"><ele>804.5999999999999</ele><time>2026-04-29T08:38:42.89Z</time></trkpt><trkpt lat="39.821843504497615" lon="9.417269260159085"><ele>802.8</ele><time>2026-04-29T08:38:44.89Z</time></trkpt><trkpt lat="39.82193638978475" lon="9.417293760141163"><ele>801.0</ele><time>2026-04-29T08:38:47.888Z</time></trkpt><trkpt lat="39.82197091561166" lon="9.417412763352159"><ele>801.8</ele><time>2026-04-29T08:38:49.887Z</time></trkpt><trkpt lat="39.82200655326897" lon="9.417516538192613"><ele>802.5999999999999</ele><time>2026-04-29T08:38:59.887Z</time></trkpt><trkpt lat="39.822027565090664" lon="9.417623701634843"><ele>803.4</ele><time>2026-04-29T08:39:01.887Z</time></trkpt><trkpt lat="39.822032573986384" lon="9.417758106474409"><ele>804.2</ele><time>2026-04-29T08:39:03.887Z</time></trkpt><trkpt lat="39.82205826019708" lon="9.417898361133973"><ele>805.0</ele><time>2026-04-29T08:39:05.887Z</time></trkpt><trkpt lat="39.82213452327036" lon="9.418040001363112"><ele>805.0</ele><time>2026-04-29T08:39:07.887Z</time></trkpt><trkpt lat="39.82216964956481" lon="9.41812609758468"><ele>805.0</ele><time>2026-04-29T08:39:08.887Z</time></trkpt><trkpt lat="39.822216547676845" lon="9.418201123592793"><ele>805.0</ele><time>2026-04-29T08:39:09.887Z</time></trkpt><trkpt lat="39.82226775779095" lon="9.418274994633803"><ele>805.0</ele><time>2026-04-29T08:39:10.887Z</time></trkpt><trkpt lat="39.82231348710185" lon="9.418333240936438"><ele>805.0</ele><time>2026-04-29T08:39:11.887Z</time></trkpt><trkpt lat="39.82237003263037" lon="9.4183805387133"><ele>805.0</ele><time>2026-04-29T08:39:12.887Z</time></trkpt><trkpt lat="39.82241471913692" lon="9.418447006219381"><ele>805.0</ele><time>2026-04-29T08:39:13.887Z</time></trkpt><trkpt lat="39.822488495955035" lon="9.418507460560548"><ele>804.9999999999999</ele><time>2026-04-29T08:39:14.887Z</time></trkpt><trkpt lat="39.82255820504952" lon="9.418578191390104"><ele>805.0</ele><time>2026-04-29T08:39:15.887Z</time></trkpt><trkpt lat="39.82261320845158" lon="9.418626807694068"><ele>805.0</ele><time>2026-04-29T08:39:16.887Z</time></trkpt><trkpt lat="39.8226769523833" lon="9.418674977418739"><ele>805.0</ele><time>2026-04-29T08:39:17.887Z</time></trkpt><trkpt lat="39.82274936853875" lon="9.418744726558453"><ele>804.9999999999999</ele><time>2026-04-29T08:39:18.887Z</time></trkpt><trkpt lat="39.82281006378969" lon="9.418814319192343"><ele>805.0</ele><time>2026-04-29T08:39:19.887Z</time></trkpt><trkpt lat="39.8228897574504" lon="9.418882622950173"><ele>804.6</ele><time>2026-04-29T08:39:20.887Z</time></trkpt><trkpt lat="39.82294165946331" lon="9.418981447470951"><ele>804.2</ele><time>2026-04-29T08:39:21.887Z</time></trkpt><trkpt lat="39.82301546199654" lon="9.419064738471368"><ele>803.8</ele><time>2026-04-29T08:39:22.887Z</time></trkpt><trkpt lat="39.82307760055917" lon="9.41915559829493"><ele>803.4</ele><time>2026-04-29T08:39:23.887Z</time></trkpt><trkpt lat="39.82314219239813" lon="9.419247457450336"><ele>803.0</ele><time>2026-04-29T08:39:24.887Z</time></trkpt><trkpt lat="39.82320191942341" lon="9.419323732615972"><ele>803.0</ele><time>2026-04-29T08:39:25.887Z</time></trkpt><trkpt lat="39.82327529037536" lon="9.4194034585935"><ele>803.0</ele><time>2026-04-29T08:39:26.887Z</time></trkpt><trkpt lat="39.82332667373466" lon="9.419493931733943"><ele>803.0</ele><time>2026-04-29T08:39:27.887Z</time></trkpt><trkpt lat="39.8233842902132" lon="9.419574318825298"><ele>803.0</ele><time>2026-04-29T08:39:28.887Z</time></trkpt><trkpt lat="39.82342649914141" lon="9.419680705968478"><ele>803.0</ele><time>2026-04-29T08:39:29.887Z</time></trkpt><trkpt lat="39.82344762324693" lon="9.419796380616459"><ele>805.1666666666667</ele><time>2026-04-29T08:39:30.887Z</time></trkpt><trkpt lat="39.82348258950217" lon="9.419878097959147"><ele>807.3333333333334</ele><time>2026-04-29T08:39:31.887Z</time></trkpt><trkpt lat="39.82352667894764" lon="9.419962423270352"><ele>809.5</ele><time>2026-04-29T08:39:33.887Z</time></trkpt><trkpt lat="39.82361706106286" lon="9.419996703830133"><ele>811.6666666666667</ele><time>2026-04-29T08:39:35.887Z</time></trkpt><trkpt lat="39.823726848559744" lon="9.420052973262536"><ele>813.8333333333334</ele><time>2026-04-29T08:39:37.887Z</time></trkpt><trkpt lat="39.823804093084426" lon="9.42005783011267"><ele>816.0</ele><time>2026-04-29T08:39:38.887Z</time></trkpt><trkpt lat="39.82387851954486" lon="9.420047664235602"><ele>816.0</ele><time>2026-04-29T08:39:39.887Z</time></trkpt><trkpt lat="39.82395281981641" lon="9.420026359351645"><ele>816.0</ele><time>2026-04-29T08:39:40.887Z</time></trkpt><trkpt lat="39.82403383448943" lon="9.419989906210013"><ele>816.0</ele><time>2026-04-29T08:39:41.887Z</time></trkpt><trkpt lat="39.824107394453" lon="9.419944442878023"><ele>816.0</ele><time>2026-04-29T08:39:42.887Z</time></trkpt><trkpt lat="39.824201492170914" lon="9.419861447101908"><ele>816.0</ele><time>2026-04-29T08:39:43.887Z</time></trkpt><trkpt lat="39.82428151677702" lon="9.4197703041701"><ele>817.0</ele><time>2026-04-29T08:39:44.887Z</time></trkpt><trkpt lat="39.82435445404868" lon="9.419681049284852"><ele>818.0</ele><time>2026-04-29T08:39:45.887Z</time></trkpt><trkpt lat="39.82440920359204" lon="9.419585594184388"><ele>819.0</ele><time>2026-04-29T08:39:46.887Z</time></trkpt><trkpt lat="39.82446887413699" lon="9.419509046641945"><ele>820.0</ele><time>2026-04-29T08:39:47.887Z</time></trkpt><trkpt lat="39.82452400209745" lon="9.419425532282897"><ele>821.0</ele><time>2026-04-29T08:39:48.887Z</time></trkpt><trkpt lat="39.82459081263321" lon="9.419331434172344"><ele>821.0000000000001</ele><time>2026-04-29T08:39:49.887Z</time></trkpt><trkpt lat="39.824656987655715" lon="9.419241012404836"><ele>821.0</ele><time>2026-04-29T08:39:50.887Z</time></trkpt><trkpt lat="39.82472092287685" lon="9.419153026402235"><ele>821.0</ele><time>2026-04-29T08:39:51.887Z</time></trkpt><trkpt lat="39.82477362218202" lon="9.41908404506298"><ele>821.0</ele><time>2026-04-29T08:39:52.887Z</time></trkpt><trkpt lat="39.824817640083054" lon="9.41902140245594"><ele>821.0000000000001</ele><time>2026-04-29T08:39:53.887Z</time></trkpt><trkpt lat="39.824847807570066" lon="9.418941318259082"><ele>821.0</ele><time>2026-04-29T08:39:54.887Z</time></trkpt><trkpt lat="39.824903310270784" lon="9.418806766453503"><ele>821.4285714285714</ele><time>2026-04-29T08:39:56.887Z</time></trkpt><trkpt lat="39.824950214697985" lon="9.418741491126603"><ele>821.8571428571429</ele><time>2026-04-29T08:39:57.887Z</time></trkpt><trkpt lat="39.82500036663712" lon="9.418677556871446"><ele>822.2857142857142</ele><time>2026-04-29T08:39:58.887Z</time></trkpt><trkpt lat="39.82505020196711" lon="9.418611754058428"><ele>822.7142857142858</ele><time>2026-04-29T08:39:59.887Z</time></trkpt><trkpt lat="39.825099355526866" lon="9.418544719823942"><ele>823.1428571428571</ele><time>2026-04-29T08:40:00.886Z</time></trkpt><trkpt lat="39.8251402769255" lon="9.41847657842813"><ele>823.5714285714286</ele><time>2026-04-29T08:40:01.886Z</time></trkpt><trkpt lat="39.82518806830066" lon="9.418403121766234"><ele>824.0</ele><time>2026-04-29T08:40:02.886Z</time></trkpt><trkpt lat="39.82523436922086" lon="9.418324548201593"><ele>824.0000000000001</ele><time>2026-04-29T08:40:03.886Z</time></trkpt><trkpt lat="39.825289858067244" lon="9.418263769912683"><ele>824.0</ele><time>2026-04-29T08:40:04.886Z</time></trkpt><trkpt lat="39.82534952296684" lon="9.418187541360396"><ele>824.0</ele><time>2026-04-29T08:40:05.886Z</time></trkpt><trkpt lat="39.82541322045786" lon="9.41810870118506"><ele>824.0</ele><time>2026-04-29T08:40:06.886Z</time></trkpt><trkpt lat="39.825476563995466" lon="9.418039335963112"><ele>824.0000000000001</ele><time>2026-04-29T08:40:07.886Z</time></trkpt><trkpt lat="39.82553750705745" lon="9.417965200022536"><ele>824.0</ele><time>2026-04-29T08:40:08.886Z</time></trkpt><trkpt lat="39.82560661780801" lon="9.417893469188714"><ele>821.3333333333334</ele><time>2026-04-29T08:40:09.886Z</time></trkpt><trkpt lat="39.82566813680401" lon="9.417828370185164"><ele>818.6666666666667</ele><time>2026-04-29T08:40:10.886Z</time></trkpt><trkpt lat="39.825737749723906" lon="9.417761039080036"><ele>816.0</ele><time>2026-04-29T08:40:11.886Z</time></trkpt><trkpt lat="39.825793634067416" lon="9.417677948957836"><ele>813.3333333333333</ele><time>2026-04-29T08:40:12.886Z</time></trkpt><trkpt lat="39.825857600917296" lon="9.417590719995076"><ele>810.6666666666666</ele><time>2026-04-29T08:40:13.886Z</time></trkpt><trkpt lat="39.82592962309133" lon="9.417508178051085"><ele>808.0</ele><time>2026-04-29T08:40:14.886Z</time></trkpt><trkpt lat="39.82600082143939" lon="9.417428840350459"><ele>808.0</ele><time>2026-04-29T08:40:15.886Z</time></trkpt><trkpt lat="39.826067689465546" lon="9.417351515342869"><ele>808.0</ele><time>2026-04-29T08:40:16.886Z</time></trkpt><trkpt lat="39.82613578873131" lon="9.417274666807373"><ele>808.0</ele><time>2026-04-29T08:40:17.886Z</time></trkpt><trkpt lat="39.82620275748832" lon="9.417188562676495"><ele>808.0</ele><time>2026-04-29T08:40:18.886Z</time></trkpt><trkpt lat="39.8262694200835" lon="9.4170980016465"><ele>808.0</ele><time>2026-04-29T08:40:19.886Z</time></trkpt><trkpt lat="39.826334908693006" lon="9.41701472373945"><ele>804.0</ele><time>2026-04-29T08:40:20.886Z</time></trkpt><trkpt lat="39.826398370273694" lon="9.416935906419024"><ele>800.0</ele><time>2026-04-29T08:40:21.886Z</time></trkpt><trkpt lat="39.82645453130399" lon="9.416845717770874"><ele>796.0</ele><time>2026-04-29T08:40:22.886Z</time></trkpt><trkpt lat="39.82651000821858" lon="9.416750186848047"><ele>792.0</ele><time>2026-04-29T08:40:23.886Z</time></trkpt><trkpt lat="39.826567262474335" lon="9.41665357956766"><ele>788.0</ele><time>2026-04-29T08:40:24.886Z</time></trkpt><trkpt lat="39.826625867322676" lon="9.416562573962103"><ele>788.0000000000001</ele><time>2026-04-29T08:40:25.886Z</time></trkpt><trkpt lat="39.826685645478804" lon="9.41647362930634"><ele>788.0</ele><time>2026-04-29T08:40:26.886Z</time></trkpt><trkpt lat="39.82673771210548" lon="9.416380377185236"><ele>788.0</ele><time>2026-04-29T08:40:27.886Z</time></trkpt><trkpt lat="39.82678598023598" lon="9.416289850947564"><ele>788.0</ele><time>2026-04-29T08:40:28.886Z</time></trkpt><trkpt lat="39.826827976639706" lon="9.416189165388527"><ele>788.0000000000001</ele><time>2026-04-29T08:40:29.886Z</time></trkpt><trkpt lat="39.8268651057463" lon="9.416081791407825"><ele>788.0</ele><time>2026-04-29T08:40:30.886Z</time></trkpt><trkpt lat="39.82688903405891" lon="9.415980336903772"><ele>784.2</ele><time>2026-04-29T08:40:31.886Z</time></trkpt><trkpt lat="39.82692223605365" lon="9.415869448564354"><ele>780.4</ele><time>2026-04-29T08:40:32.886Z</time></trkpt><trkpt lat="39.82694910143209" lon="9.415775602354417"><ele>776.6</ele><time>2026-04-29T08:40:33.886Z</time></trkpt><trkpt lat="39.82700897627503" lon="9.415655577412027"><ele>772.8000000000001</ele><time>2026-04-29T08:40:35.886Z</time></trkpt><trkpt lat="39.827084934609935" lon="9.415615258766282"><ele>769.0</ele><time>2026-04-29T08:40:37.886Z</time></trkpt><trkpt lat="39.82718998421327" lon="9.415628747453885"><ele>768.9999999999999</ele><time>2026-04-29T08:40:39.886Z</time></trkpt><trkpt lat="39.82725095481816" lon="9.415654677572636"><ele>769.0</ele><time>2026-04-29T08:40:40.886Z</time></trkpt><trkpt lat="39.82731990029971" lon="9.415708168401668"><ele>769.0</ele><time>2026-04-29T08:40:41.886Z</time></trkpt><trkpt lat="39.827388323373256" lon="9.415778413257751"><ele>769.0</ele><time>2026-04-29T08:40:42.886Z</time></trkpt><trkpt lat="39.827457024804424" lon="9.415835984868655"><ele>768.9999999999999</ele><time>2026-04-29T08:40:43.886Z</time></trkpt><trkpt lat="39.82752080312614" lon="9.415882201001276"><ele>769.0</ele><time>2026-04-29T08:40:44.886Z</time></trkpt><trkpt lat="39.82758519059531" lon="9.415927320721625"><ele>765.6666666666666</ele><time>2026-04-29T08:40:45.886Z</time></trkpt><trkpt lat="39.8276511606766" lon="9.415963906691728"><ele>762.3333333333333</ele><time>2026-04-29T08:40:46.886Z</time></trkpt><trkpt lat="39.82772539847632" lon="9.41598938510926"><ele>759.0</ele><time>2026-04-29T08:40:47.886Z</time></trkpt><trkpt lat="39.82779688497708" lon="9.416016595466532"><ele>755.6666666666666</ele><time>2026-04-29T08:40:48.886Z</time></trkpt><trkpt lat="39.82787023126216" lon="9.416030692578083"><ele>752.3333333333333</ele><time>2026-04-29T08:40:49.886Z</time></trkpt><trkpt lat="39.827990185771995" lon="9.416018977506496"><ele>749.0</ele><time>2026-04-29T08:40:51.886Z</time></trkpt><trkpt lat="39.82805107881075" lon="9.415993182934303"><ele>749.0</ele><time>2026-04-29T08:40:52.885Z</time></trkpt><trkpt lat="39.82812534276794" lon="9.41592392057736"><ele>749.0</ele><time>2026-04-29T08:40:54.885Z</time></trkpt><trkpt lat="39.82821502222802" lon="9.415872171766493"><ele>749.0</ele><time>2026-04-29T08:40:56.885Z</time></trkpt><trkpt lat="39.828291075096814" lon="9.415866727598587"><ele>749.0</ele><time>2026-04-29T08:40:58.884Z</time></trkpt><trkpt lat="39.82837335103424" lon="9.415888308024993"><ele>749.0</ele><time>2026-04-29T08:41:00.885Z</time></trkpt><trkpt lat="39.828449775861266" lon="9.415949564383645"><ele>749.0</ele><time>2026-04-29T08:41:02.886Z</time></trkpt><trkpt lat="39.828515887009175" lon="9.416023754207629"><ele>743.2</ele><time>2026-04-29T08:41:04.885Z</time></trkpt><trkpt lat="39.82857260681769" lon="9.416111434253214"><ele>737.4000000000001</ele><time>2026-04-29T08:41:06.885Z</time></trkpt><trkpt lat="39.828592945170044" lon="9.416225496420632"><ele>731.6</ele><time>2026-04-29T08:41:08.885Z</time></trkpt><trkpt lat="39.82857294320036" lon="9.416367600389172"><ele>725.8</ele><time>2026-04-29T08:41:10.885Z</time></trkpt><trkpt lat="39.82856476367905" lon="9.416449369212893"><ele>720.0</ele><time>2026-04-29T08:41:11.885Z</time></trkpt><trkpt lat="39.82855909351424" lon="9.416606435015472"><ele>720.0</ele><time>2026-04-29T08:41:13.885Z</time></trkpt><trkpt lat="39.82856036577094" lon="9.416693016202359"><ele>720.0</ele><time>2026-04-29T08:41:14.885Z</time></trkpt><trkpt lat="39.828573828205975" lon="9.416774235147463"><ele>720.0</ele><time>2026-04-29T08:41:15.885Z</time></trkpt><trkpt lat="39.82860871235453" lon="9.416927319058901"><ele>720.0</ele><time>2026-04-29T08:41:17.885Z</time></trkpt><trkpt lat="39.82865996007234" lon="9.417047603647497"><ele>720.0</ele><time>2026-04-29T08:41:19.885Z</time></trkpt><trkpt lat="39.828708545741236" lon="9.417109191110058"><ele>720.0</ele><time>2026-04-29T08:41:20.885Z</time></trkpt><trkpt lat="39.82875952387056" lon="9.417173678240061"><ele>721.5</ele><time>2026-04-29T08:41:21.885Z</time></trkpt><trkpt lat="39.82881824624073" lon="9.417300689230974"><ele>723.0</ele><time>2026-04-29T08:41:23.885Z</time></trkpt><trkpt lat="39.82885006395771" lon="9.417443388498674"><ele>724.5</ele><time>2026-04-29T08:41:25.885Z</time></trkpt><trkpt lat="39.82890878099386" lon="9.41756112059741"><ele>726.0</ele><time>2026-04-29T08:41:27.885Z</time></trkpt><trkpt lat="39.82899688189341" lon="9.41766617827091"><ele>726.0</ele><time>2026-04-29T08:41:29.885Z</time></trkpt><trkpt lat="39.82906581411997" lon="9.417722239685224"><ele>726.0</ele><time>2026-04-29T08:41:30.885Z</time></trkpt><trkpt lat="39.82912821331294" lon="9.417782201501957"><ele>726.0</ele><time>2026-04-29T08:41:31.885Z</time></trkpt><trkpt lat="39.829187138107976" lon="9.417847312639228"><ele>726.0</ele><time>2026-04-29T08:41:32.885Z</time></trkpt><trkpt lat="39.82925049308232" lon="9.41792966939412"><ele>726.0</ele><time>2026-04-29T08:41:33.885Z</time></trkpt><trkpt lat="39.82930651128914" lon="9.417997772985363"><ele>726.0</ele><time>2026-04-29T08:41:34.885Z</time></trkpt><trkpt lat="39.82936779073171" lon="9.418081415592775"><ele>721.4</ele><time>2026-04-29T08:41:36.885Z</time></trkpt><trkpt lat="39.82944768536651" lon="9.418153514984985"><ele>716.8</ele><time>2026-04-29T08:41:38.885Z</time></trkpt><trkpt lat="39.829560763954596" lon="9.418227053301678"><ele>712.1999999999999</ele><time>2026-04-29T08:41:40.885Z</time></trkpt><trkpt lat="39.82965551926413" lon="9.418296576902144"><ele>707.5999999999999</ele><time>2026-04-29T08:41:42.885Z</time></trkpt><trkpt lat="39.82974213322952" lon="9.418390855077305"><ele>703.0</ele><time>2026-04-29T08:41:44.885Z</time></trkpt><trkpt lat="39.82981656575168" lon="9.418502703089672"><ele>703.0</ele><time>2026-04-29T08:41:46.885Z</time></trkpt><trkpt lat="39.82989133591099" lon="9.418609376029554"><ele>703.0</ele><time>2026-04-29T08:41:48.885Z</time></trkpt><trkpt lat="39.82998675939789" lon="9.418700708194173"><ele>703.0</ele><time>2026-04-29T08:41:50.885Z</time></trkpt><trkpt lat="39.83005421419617" lon="9.41875647046851"><ele>703.0</ele><time>2026-04-29T08:41:51.885Z</time></trkpt><trkpt lat="39.830114315146375" lon="9.418814296874435"><ele>703.0</ele><time>2026-04-29T08:41:52.885Z</time></trkpt><trkpt lat="39.830165731773945" lon="9.418879450447042"><ele>701.5</ele><time>2026-04-29T08:41:53.885Z</time></trkpt><trkpt lat="39.83020540954864" lon="9.41894450591055"><ele>700.0</ele><time>2026-04-29T08:41:54.885Z</time></trkpt><trkpt lat="39.8303015238472" lon="9.419045103427283"><ele>698.5</ele><time>2026-04-29T08:41:56.885Z</time></trkpt><trkpt lat="39.830352541049706" lon="9.419096473640705"><ele>697.0</ele><time>2026-04-29T08:41:57.885Z</time></trkpt><trkpt lat="39.83041854451776" lon="9.419134923610526"><ele>695.5</ele><time>2026-04-29T08:41:58.885Z</time></trkpt><trkpt lat="39.83048525018547" lon="9.41917091519943"><ele>694.0</ele><time>2026-04-29T08:41:59.885Z</time></trkpt><trkpt lat="39.83054642264453" lon="9.419210785386714"><ele>694.0</ele><time>2026-04-29T08:42:00.885Z</time></trkpt><trkpt lat="39.83063898015667" lon="9.419238152918648"><ele>694.0</ele><time>2026-04-29T08:42:02.885Z</time></trkpt><trkpt lat="39.830739175842986" lon="9.41926095924977"><ele>694.0</ele><time>2026-04-29T08:42:04.885Z</time></trkpt><trkpt lat="39.83084184005371" lon="9.419252718315445"><ele>694.0</ele><time>2026-04-29T08:42:06.885Z</time></trkpt><trkpt lat="39.8309733168149" lon="9.419270873852973"><ele>694.0</ele><time>2026-04-29T08:42:08.885Z</time></trkpt><trkpt lat="39.83101824899263" lon="9.419328401766679"><ele>691.3333333333334</ele><time>2026-04-29T08:42:09.885Z</time></trkpt><trkpt lat="39.83110775810498" lon="9.419338530499635"><ele>688.6666666666667</ele><time>2026-04-29T08:42:11.885Z</time></trkpt><trkpt lat="39.8311818548987" lon="9.41932240746376"><ele>686.0</ele><time>2026-04-29T08:42:12.885Z</time></trkpt><trkpt lat="39.83125094157853" lon="9.419336997875915"><ele>683.3333333333334</ele><time>2026-04-29T08:42:13.885Z</time></trkpt><trkpt lat="39.83133108093241" lon="9.419326609368966"><ele>680.6666666666666</ele><time>2026-04-29T08:42:14.885Z</time></trkpt><trkpt lat="39.83140574651121" lon="9.419316930440932"><ele>678.0</ele><time>2026-04-29T08:42:15.885Z</time></trkpt><trkpt lat="39.83148528494282" lon="9.419298973647463"><ele>678.0</ele><time>2026-04-29T08:42:16.885Z</time></trkpt><trkpt lat="39.831556860084916" lon="9.419317760546443"><ele>678.0</ele><time>2026-04-29T08:42:17.885Z</time></trkpt><trkpt lat="39.831672590543114" lon="9.41936382705382"><ele>678.0</ele><time>2026-04-29T08:42:19.885Z</time></trkpt><trkpt lat="39.83174755725085" lon="9.419391485902896"><ele>678.0</ele><time>2026-04-29T08:42:20.885Z</time></trkpt><trkpt lat="39.831839289436466" lon="9.419437338445801"><ele>678.0</ele><time>2026-04-29T08:42:22.885Z</time></trkpt><trkpt lat="39.83194648743824" lon="9.419497734554064"><ele>676.0</ele><time>2026-04-29T08:42:24.885Z</time></trkpt><trkpt lat="39.832013388066756" lon="9.419543139659448"><ele>674.0</ele><time>2026-04-29T08:42:25.885Z</time></trkpt><trkpt lat="39.83206852119956" lon="9.419586609367748"><ele>672.0</ele><time>2026-04-29T08:42:26.885Z</time></trkpt><trkpt lat="39.8321711164985" lon="9.41967782436176"><ele>670.0</ele><time>2026-04-29T08:42:28.885Z</time></trkpt><trkpt lat="39.83222869473545" lon="9.419726243301382"><ele>668.0</ele><time>2026-04-29T08:42:29.885Z</time></trkpt><trkpt lat="39.832286301832475" lon="9.419777241429024"><ele>666.0</ele><time>2026-04-29T08:42:30.885Z</time></trkpt><trkpt lat="39.832336294747094" lon="9.41983741343488"><ele>666.0</ele><time>2026-04-29T08:42:31.885Z</time></trkpt><trkpt lat="39.83238058576726" lon="9.419903405087503"><ele>666.0</ele><time>2026-04-29T08:42:32.885Z</time></trkpt><trkpt lat="39.83242839668662" lon="9.419967959501427"><ele>666.0</ele><time>2026-04-29T08:42:33.885Z</time></trkpt><trkpt lat="39.83249741768876" lon="9.420023734584527"><ele>666.0</ele><time>2026-04-29T08:42:34.885Z</time></trkpt><trkpt lat="39.832551049067405" lon="9.420096453164616"><ele>666.0</ele><time>2026-04-29T08:42:35.885Z</time></trkpt><trkpt lat="39.832595567542505" lon="9.420175179162467"><ele>666.0</ele><time>2026-04-29T08:42:36.885Z</time></trkpt><trkpt lat="39.83263181453445" lon="9.420249060065327"><ele>666.0</ele><time>2026-04-29T08:42:37.885Z</time></trkpt><trkpt lat="39.83269039932624" lon="9.420379338630937"><ele>664.1666666666666</ele><time>2026-04-29T08:42:39.885Z</time></trkpt><trkpt lat="39.83271138904495" lon="9.420458557054813"><ele>662.3333333333334</ele><time>2026-04-29T08:42:40.885Z</time></trkpt><trkpt lat="39.832729377832635" lon="9.420567696983325"><ele>660.5</ele><time>2026-04-29T08:42:42.885Z</time></trkpt><trkpt lat="39.83281169498046" lon="9.420625103332942"><ele>658.6666666666667</ele><time>2026-04-29T08:42:45.885Z</time></trkpt><trkpt lat="39.83287768566211" lon="9.420642426566012"><ele>656.8333333333334</ele><time>2026-04-29T08:42:46.885Z</time></trkpt><trkpt lat="39.83294803904027" lon="9.420637518502694"><ele>655.0</ele><time>2026-04-29T08:42:47.885Z</time></trkpt><trkpt lat="39.83307723479597" lon="9.420617019476119"><ele>655.0</ele><time>2026-04-29T08:42:49.885Z</time></trkpt><trkpt lat="39.83314421862273" lon="9.420627315134823"><ele>655.0</ele><time>2026-04-29T08:42:50.885Z</time></trkpt><trkpt lat="39.8332102304471" lon="9.420650885772828"><ele>655.0</ele><time>2026-04-29T08:42:51.885Z</time></trkpt><trkpt lat="39.83328596819907" lon="9.420641045626525"><ele>655.0</ele><time>2026-04-29T08:42:52.885Z</time></trkpt><trkpt lat="39.833359468676186" lon="9.420622988829804"><ele>655.0</ele><time>2026-04-29T08:42:53.885Z</time></trkpt><trkpt lat="39.833430121030865" lon="9.420599500155664"><ele>655.0</ele><time>2026-04-29T08:42:54.885Z</time></trkpt><trkpt lat="39.83350331839018" lon="9.420578163424583"><ele>655.0</ele><time>2026-04-29T08:42:55.885Z</time></trkpt><trkpt lat="39.83357393805835" lon="9.420594009094096"><ele>651.6666666666667</ele><time>2026-04-29T08:42:56.885Z</time></trkpt><trkpt lat="39.83363772910315" lon="9.420625186487007"><ele>648.3333333333334</ele><time>2026-04-29T08:42:57.882Z</time></trkpt><trkpt lat="39.83371557533231" lon="9.420732403317485"><ele>645.0</ele><time>2026-04-29T08:42:59.883Z</time></trkpt><trkpt lat="39.833735532236375" lon="9.420810308487003"><ele>641.6666666666666</ele><time>2026-04-29T08:43:00.882Z</time></trkpt><trkpt lat="39.83376569566041" lon="9.420938686530846"><ele>638.3333333333333</ele><time>2026-04-29T08:43:02.883Z</time></trkpt><trkpt lat="39.833807388261434" lon="9.421051715565795"><ele>635.0</ele><time>2026-04-29T08:43:04.883Z</time></trkpt><trkpt lat="39.833838164414864" lon="9.421162287177028"><ele>635.0</ele><time>2026-04-29T08:43:06.882Z</time></trkpt><trkpt lat="39.833889269955826" lon="9.421281987680532"><ele>635.0</ele><time>2026-04-29T08:43:08.883Z</time></trkpt><trkpt lat="39.83392867395312" lon="9.42139646562709"><ele>635.0</ele><time>2026-04-29T08:43:10.882Z</time></trkpt><trkpt lat="39.83395015818886" lon="9.421529698704102"><ele>635.0</ele><time>2026-04-29T08:43:12.882Z</time></trkpt><trkpt lat="39.83398409322029" lon="9.42160438361188"><ele>635.0</ele><time>2026-04-29T08:43:14.882Z</time></trkpt><trkpt lat="39.8340289451484" lon="9.421432505221047"><ele>640.0</ele><time>2026-04-29T08:43:19.882Z</time></trkpt><trkpt lat="39.83404717458558" lon="9.421337025504005"><ele>645.0</ele><time>2026-04-29T08:43:20.882Z</time></trkpt><trkpt lat="39.83410676334258" lon="9.422406625442594"><ele>645.5</ele><time>2026-04-29T08:43:21.882Z</time></trkpt><trkpt lat="39.83411001724415" lon="9.422517967698564"><ele>646.0</ele><time>2026-04-29T08:43:27.882Z</time></trkpt><trkpt lat="39.83409145730366" lon="9.422620585648778"><ele>646.5</ele><time>2026-04-29T08:43:29.882Z</time></trkpt><trkpt lat="39.83407832180613" lon="9.42270095160793"><ele>647.0</ele><time>2026-04-29T08:43:30.881Z</time></trkpt><trkpt lat="39.83403261022446" lon="9.422872349109113"><ele>647.5</ele><time>2026-04-29T08:43:32.877Z</time></trkpt><trkpt lat="39.83401272115758" lon="9.42296646763802"><ele>648.0</ele><time>2026-04-29T08:43:33.876Z</time></trkpt><trkpt lat="39.83398164654668" lon="9.42306964085217"><ele>648.5999999999999</ele><time>2026-04-29T08:43:34.874Z</time></trkpt><trkpt lat="39.83395996725462" lon="9.423180130124223"><ele>649.1999999999999</ele><time>2026-04-29T08:43:35.873Z</time></trkpt><trkpt lat="39.83394910679618" lon="9.423282508746555"><ele>649.8</ele><time>2026-04-29T08:43:36.872Z</time></trkpt><trkpt lat="39.83397533282359" lon="9.423401178769847"><ele>650.4</ele><time>2026-04-29T08:43:37.871Z</time></trkpt><trkpt lat="39.83400626012187" lon="9.423529831499165"><ele>651.0</ele><time>2026-04-29T08:43:38.87Z</time></trkpt><trkpt lat="39.83404985056771" lon="9.42366266354655"><ele>651.0</ele><time>2026-04-29T08:43:39.869Z</time></trkpt><trkpt lat="39.83408681858206" lon="9.423781671950772"><ele>651.0</ele><time>2026-04-29T08:43:40.868Z</time></trkpt><trkpt lat="39.834114970729516" lon="9.423899327964344"><ele>651.0</ele><time>2026-04-29T08:43:41.867Z</time></trkpt><trkpt lat="39.83411440942454" lon="9.42400941517037"><ele>651.0</ele><time>2026-04-29T08:43:42.866Z</time></trkpt><trkpt lat="39.83408644859425" lon="9.424107372575087"><ele>651.0</ele><time>2026-04-29T08:43:43.865Z</time></trkpt><trkpt lat="39.83403978293533" lon="9.424204934767129"><ele>651.0</ele><time>2026-04-29T08:43:44.864Z</time></trkpt><trkpt lat="39.83395312636875" lon="9.424284338435262"><ele>651.4</ele><time>2026-04-29T08:43:45.864Z</time></trkpt><trkpt lat="39.833892980125114" lon="9.424379342699806"><ele>651.8</ele><time>2026-04-29T08:43:46.863Z</time></trkpt><trkpt lat="39.83384018662062" lon="9.424473575394876"><ele>652.1999999999999</ele><time>2026-04-29T08:43:47.862Z</time></trkpt><trkpt lat="39.83381340584199" lon="9.42457997855408"><ele>652.5999999999999</ele><time>2026-04-29T08:43:48.862Z</time></trkpt><trkpt lat="39.8338064895618" lon="9.424687366534938"><ele>653.0</ele><time>2026-04-29T08:43:49.861Z</time></trkpt><trkpt lat="39.83382023783724" lon="9.424821143699946"><ele>655.0</ele><time>2026-04-29T08:43:50.861Z</time></trkpt><trkpt lat="39.83382998791659" lon="9.424952978244942"><ele>657.0</ele><time>2026-04-29T08:43:51.86Z</time></trkpt><trkpt lat="39.8338665912787" lon="9.425095938264892"><ele>659.0</ele><time>2026-04-29T08:43:52.86Z</time></trkpt><trkpt lat="39.83392145883646" lon="9.42522274183989"><ele>661.0</ele><time>2026-04-29T08:43:53.859Z</time></trkpt><trkpt lat="39.83397942402661" lon="9.4253754877"><ele>663.75</ele><time>2026-04-29T08:43:54.859Z</time></trkpt><trkpt lat="39.83404713387873" lon="9.425523383683645"><ele>666.5</ele><time>2026-04-29T08:43:55.859Z</time></trkpt><trkpt lat="39.83410633277701" lon="9.4256352338668"><ele>669.25</ele><time>2026-04-29T08:43:56.858Z</time></trkpt><trkpt lat="39.8341574094804" lon="9.425771619673734"><ele>672.0</ele><time>2026-04-29T08:43:57.858Z</time></trkpt><trkpt lat="39.83420053952086" lon="9.425931518057519"><ele>672.0</ele><time>2026-04-29T08:43:58.858Z</time></trkpt><trkpt lat="39.83423005687467" lon="9.426097195690257"><ele>672.0</ele><time>2026-04-29T08:43:59.857Z</time></trkpt><trkpt lat="39.834239495822494" lon="9.426267162747989"><ele>672.0</ele><time>2026-04-29T08:44:00.857Z</time></trkpt><trkpt lat="39.834252243442435" lon="9.426434233836583"><ele>672.0</ele><time>2026-04-29T08:44:01.857Z</time></trkpt><trkpt lat="39.834271656394904" lon="9.426586684033136"><ele>673.25</ele><time>2026-04-29T08:44:02.856Z</time></trkpt><trkpt lat="39.8342675740808" lon="9.4267296467522"><ele>674.5</ele><time>2026-04-29T08:44:03.856Z</time></trkpt><trkpt lat="39.834245618994565" lon="9.426864832082474"><ele>675.75</ele><time>2026-04-29T08:44:04.856Z</time></trkpt><trkpt lat="39.83421125661577" lon="9.427015481783434"><ele>677.0</ele><time>2026-04-29T08:44:05.856Z</time></trkpt><trkpt lat="39.834154741141894" lon="9.427151949931472"><ele>677.0</ele><time>2026-04-29T08:44:06.856Z</time></trkpt><trkpt lat="39.8340794735414" lon="9.427280480835373"><ele>677.0</ele><time>2026-04-29T08:44:07.855Z</time></trkpt><trkpt lat="39.833988947626594" lon="9.427408575198413"><ele>677.0</ele><time>2026-04-29T08:44:08.855Z</time></trkpt><trkpt lat="39.83387716106214" lon="9.427558357810973"><ele>677.0</ele><time>2026-04-29T08:44:09.855Z</time></trkpt><trkpt lat="39.83377764811689" lon="9.427698576677559"><ele>677.0</ele><time>2026-04-29T08:44:10.855Z</time></trkpt><trkpt lat="39.83369703527339" lon="9.427839829016396"><ele>677.0</ele><time>2026-04-29T08:44:11.855Z</time></trkpt><trkpt lat="39.83362302447803" lon="9.428017664934517"><ele>677.0</ele><time>2026-04-29T08:44:12.855Z</time></trkpt><trkpt lat="39.83354170208401" lon="9.428197487655222"><ele>680.6666666666666</ele><time>2026-04-29T08:44:13.855Z</time></trkpt><trkpt lat="39.83346791665956" lon="9.428371153156096"><ele>684.3333333333334</ele><time>2026-04-29T08:44:14.854Z</time></trkpt><trkpt lat="39.833387962025526" lon="9.428557957569815"><ele>688.0</ele><time>2026-04-29T08:44:15.854Z</time></trkpt><trkpt lat="39.83332518212479" lon="9.428740155138334"><ele>685.75</ele><time>2026-04-29T08:44:16.854Z</time></trkpt><trkpt lat="39.83327267174493" lon="9.428923714913868"><ele>683.5</ele><time>2026-04-29T08:44:17.854Z</time></trkpt><trkpt lat="39.8332166526344" lon="9.429084375726221"><ele>681.25</ele><time>2026-04-29T08:44:18.854Z</time></trkpt><trkpt lat="39.83314458279725" lon="9.42924737419672"><ele>679.0</ele><time>2026-04-29T08:44:19.854Z</time></trkpt><trkpt lat="39.83306558214457" lon="9.429382878918505"><ele>679.0</ele><time>2026-04-29T08:44:20.854Z</time></trkpt><trkpt lat="39.833019749493104" lon="9.429543557250312"><ele>679.0</ele><time>2026-04-29T08:44:21.854Z</time></trkpt><trkpt lat="39.83300946993546" lon="9.4297162712677"><ele>679.0</ele><time>2026-04-29T08:44:22.854Z</time></trkpt><trkpt lat="39.8329736687881" lon="9.429874705958133"><ele>679.0</ele><time>2026-04-29T08:44:23.854Z</time></trkpt><trkpt lat="39.83292892964314" lon="9.430042004057563"><ele>679.2</ele><time>2026-04-29T08:44:24.854Z</time></trkpt><trkpt lat="39.832875575423635" lon="9.430187853873033"><ele>679.4000000000001</ele><time>2026-04-29T08:44:25.854Z</time></trkpt><trkpt lat="39.8328325111023" lon="9.430322066312264"><ele>679.6</ele><time>2026-04-29T08:44:26.853Z</time></trkpt><trkpt lat="39.832810775164205" lon="9.430458261357163"><ele>679.8</ele><time>2026-04-29T08:44:27.853Z</time></trkpt><trkpt lat="39.83280913415051" lon="9.430594290216899"><ele>680.0</ele><time>2026-04-29T08:44:28.853Z</time></trkpt><trkpt lat="39.83281917381021" lon="9.430736406434857"><ele>680.0</ele><time>2026-04-29T08:44:29.853Z</time></trkpt><trkpt lat="39.832848978413594" lon="9.430884284916996"><ele>680.0</ele><time>2026-04-29T08:44:30.853Z</time></trkpt><trkpt lat="39.83288036498561" lon="9.431044566443894"><ele>680.0</ele><time>2026-04-29T08:44:31.853Z</time></trkpt><trkpt lat="39.832888466053134" lon="9.43121148498633"><ele>680.0</ele><time>2026-04-29T08:44:32.853Z</time></trkpt><trkpt lat="39.83286474903461" lon="9.431378927457322"><ele>681.0</ele><time>2026-04-29T08:44:33.853Z</time></trkpt><trkpt lat="39.83284285637316" lon="9.43155116606259"><ele>682.0</ele><time>2026-04-29T08:44:34.853Z</time></trkpt><trkpt lat="39.83280939111007" lon="9.431730546021614"><ele>683.0</ele><time>2026-04-29T08:44:35.853Z</time></trkpt><trkpt lat="39.83277783810525" lon="9.431913267104282"><ele>684.0</ele><time>2026-04-29T08:44:36.853Z</time></trkpt><trkpt lat="39.83276517229191" lon="9.432088170039602"><ele>684.25</ele><time>2026-04-29T08:44:37.853Z</time></trkpt><trkpt lat="39.83276327159234" lon="9.432253905449981"><ele>684.5</ele><time>2026-04-29T08:44:38.853Z</time></trkpt><trkpt lat="39.83277589190181" lon="9.432410281804701"><ele>684.75</ele><time>2026-04-29T08:44:39.853Z</time></trkpt><trkpt lat="39.83279188396482" lon="9.432560058693461"><ele>685.0</ele><time>2026-04-29T08:44:40.853Z</time></trkpt><trkpt lat="39.832798340237716" lon="9.43269256826033"><ele>685.0</ele><time>2026-04-29T08:44:41.853Z</time></trkpt><trkpt lat="39.832786287471315" lon="9.43281012206729"><ele>685.0</ele><time>2026-04-29T08:44:42.853Z</time></trkpt><trkpt lat="39.83273068328274" lon="9.432922695411989"><ele>685.0</ele><time>2026-04-29T08:44:43.853Z</time></trkpt><trkpt lat="39.832667805378556" lon="9.433032619730907"><ele>685.0</ele><time>2026-04-29T08:44:44.853Z</time></trkpt><trkpt lat="39.832595164878626" lon="9.433149149123551"><ele>685.0</ele><time>2026-04-29T08:44:45.853Z</time></trkpt><trkpt lat="39.83251237349281" lon="9.433292984053145"><ele>687.25</ele><time>2026-04-29T08:44:46.853Z</time></trkpt><trkpt lat="39.83243509433477" lon="9.433434234030791"><ele>689.5</ele><time>2026-04-29T08:44:47.853Z</time></trkpt><trkpt lat="39.83236737157058" lon="9.43354182994037"><ele>691.75</ele><time>2026-04-29T08:44:48.853Z</time></trkpt><trkpt lat="39.83232214045984" lon="9.433669556351374"><ele>694.0</ele><time>2026-04-29T08:44:49.853Z</time></trkpt><trkpt lat="39.832310699220926" lon="9.43381696603785"><ele>694.0</ele><time>2026-04-29T08:44:50.853Z</time></trkpt><trkpt lat="39.832301615239814" lon="9.433937657022183"><ele>694.0</ele><time>2026-04-29T08:44:51.853Z</time></trkpt><trkpt lat="39.83232846747257" lon="9.434067550593277"><ele>694.0</ele><time>2026-04-29T08:44:52.853Z</time></trkpt><trkpt lat="39.83233848402517" lon="9.434199274805442"><ele>694.0</ele><time>2026-04-29T08:44:53.853Z</time></trkpt><trkpt lat="39.83231316697535" lon="9.43432753925516"><ele>694.0</ele><time>2026-04-29T08:44:54.852Z</time></trkpt><trkpt lat="39.83224478506691" lon="9.434432455408167"><ele>694.0</ele><time>2026-04-29T08:44:55.852Z</time></trkpt><trkpt lat="39.83217607943924" lon="9.434544334485297"><ele>694.0</ele><time>2026-04-29T08:44:56.852Z</time></trkpt><trkpt lat="39.832110357089654" lon="9.434640696830076"><ele>694.0</ele><time>2026-04-29T08:44:57.852Z</time></trkpt><trkpt lat="39.83204550299946" lon="9.43473368299916"><ele>694.0</ele><time>2026-04-29T08:44:58.852Z</time></trkpt><trkpt lat="39.83201323261619" lon="9.434869725223692"><ele>694.0</ele><time>2026-04-29T08:44:59.852Z</time></trkpt><trkpt lat="39.83200371804331" lon="9.435026958107748"><ele>694.25</ele><time>2026-04-29T08:45:00.852Z</time></trkpt><trkpt lat="39.83199247500995" lon="9.43517801828435"><ele>694.5</ele><time>2026-04-29T08:45:01.852Z</time></trkpt><trkpt lat="39.832006951636025" lon="9.435327074973474"><ele>694.75</ele><time>2026-04-29T08:45:02.852Z</time></trkpt><trkpt lat="39.832028061654256" lon="9.435496750157412"><ele>695.0</ele><time>2026-04-29T08:45:03.851Z</time></trkpt><trkpt lat="39.83204538523933" lon="9.435676057914648"><ele>695.0</ele><time>2026-04-29T08:45:04.85Z</time></trkpt><trkpt lat="39.83206947157249" lon="9.435851523063176"><ele>695.0</ele><time>2026-04-29T08:45:05.85Z</time></trkpt><trkpt lat="39.83209490603906" lon="9.436040315223455"><ele>695.0</ele><time>2026-04-29T08:45:06.851Z</time></trkpt><trkpt lat="39.83211761556365" lon="9.436213908007002"><ele>695.0</ele><time>2026-04-29T08:45:07.851Z</time></trkpt><trkpt lat="39.832135522786274" lon="9.436391408279135"><ele>695.0</ele><time>2026-04-29T08:45:08.851Z</time></trkpt><trkpt lat="39.832148785117475" lon="9.436567675511734"><ele>695.0</ele><time>2026-04-29T08:45:09.851Z</time></trkpt><trkpt lat="39.83212931863451" lon="9.436759393635008"><ele>695.0</ele><time>2026-04-29T08:45:10.851Z</time></trkpt><trkpt lat="39.832120644969585" lon="9.436961730163"><ele>695.0</ele><time>2026-04-29T08:45:11.851Z</time></trkpt><trkpt lat="39.83211042143113" lon="9.437169681015774"><ele>695.0</ele><time>2026-04-29T08:45:12.851Z</time></trkpt><trkpt lat="39.83210084721603" lon="9.437375681121548"><ele>695.0</ele><time>2026-04-29T08:45:13.85Z</time></trkpt><trkpt lat="39.83208280940928" lon="9.43756912192853"><ele>695.0</ele><time>2026-04-29T08:45:14.85Z</time></trkpt><trkpt lat="39.832063466637074" lon="9.437760938946452"><ele>695.0</ele><time>2026-04-29T08:45:15.851Z</time></trkpt><trkpt lat="39.83204458554213" lon="9.437960135683767"><ele>695.0</ele><time>2026-04-29T08:45:16.85Z</time></trkpt><trkpt lat="39.83201669259493" lon="9.438145082048239"><ele>695.0</ele><time>2026-04-29T08:45:17.85Z</time></trkpt><trkpt lat="39.83200346225114" lon="9.438313024693"><ele>695.0</ele><time>2026-04-29T08:45:18.85Z</time></trkpt><trkpt lat="39.83201208167668" lon="9.438467539160335"><ele>696.25</ele><time>2026-04-29T08:45:19.85Z</time></trkpt><trkpt lat="39.832035978048665" lon="9.438623336769236"><ele>697.5</ele><time>2026-04-29T08:45:20.85Z</time></trkpt><trkpt lat="39.83208528656391" lon="9.438757667665483"><ele>698.75</ele><time>2026-04-29T08:45:21.85Z</time></trkpt><trkpt lat="39.8321442810105" lon="9.438887451075388"><ele>700.0</ele><time>2026-04-29T08:45:22.85Z</time></trkpt><trkpt lat="39.83221567870041" lon="9.439016769828"><ele>702.75</ele><time>2026-04-29T08:45:23.85Z</time></trkpt><trkpt lat="39.832305308399405" lon="9.439147916943472"><ele>705.5</ele><time>2026-04-29T08:45:24.85Z</time></trkpt><trkpt lat="39.832401572470076" lon="9.439278943460188"><ele>708.25</ele><time>2026-04-29T08:45:25.85Z</time></trkpt><trkpt lat="39.83249522552783" lon="9.439422165906278"><ele>711.0</ele><time>2026-04-29T08:45:26.85Z</time></trkpt><trkpt lat="39.83258433023028" lon="9.439570274664169"><ele>711.75</ele><time>2026-04-29T08:45:27.85Z</time></trkpt><trkpt lat="39.83267277716005" lon="9.439711796208622"><ele>712.5</ele><time>2026-04-29T08:45:28.85Z</time></trkpt><trkpt lat="39.83276177974389" lon="9.439850514369377"><ele>713.25</ele><time>2026-04-29T08:45:29.85Z</time></trkpt><trkpt lat="39.83286681525042" lon="9.43996832045225"><ele>714.0</ele><time>2026-04-29T08:45:30.85Z</time></trkpt><trkpt lat="39.83296821162716" lon="9.4400740086852"><ele>714.0</ele><time>2026-04-29T08:45:31.85Z</time></trkpt><trkpt lat="39.83304837703511" lon="9.440169038616933"><ele>714.0</ele><time>2026-04-29T08:45:32.85Z</time></trkpt><trkpt lat="39.83312297544954" lon="9.440275556229443"><ele>714.0</ele><time>2026-04-29T08:45:33.85Z</time></trkpt><trkpt lat="39.83316612783729" lon="9.440402063111078"><ele>714.0</ele><time>2026-04-29T08:45:34.85Z</time></trkpt><trkpt lat="39.8332124211447" lon="9.440525185754225"><ele>714.0</ele><time>2026-04-29T08:45:35.85Z</time></trkpt><trkpt lat="39.83322496810983" lon="9.440683470996468"><ele>714.75</ele><time>2026-04-29T08:45:36.85Z</time></trkpt><trkpt lat="39.8332442081624" lon="9.440839280305429"><ele>715.5</ele><time>2026-04-29T08:45:37.85Z</time></trkpt><trkpt lat="39.8332579775578" lon="9.441026897260954"><ele>716.25</ele><time>2026-04-29T08:45:38.85Z</time></trkpt><trkpt lat="39.833282853182254" lon="9.441197950314438"><ele>717.0</ele><time>2026-04-29T08:45:39.85Z</time></trkpt><trkpt lat="39.83331657765891" lon="9.441342203047975"><ele>717.8</ele><time>2026-04-29T08:45:40.85Z</time></trkpt><trkpt lat="39.833377467360194" lon="9.441460957816107"><ele>718.6</ele><time>2026-04-29T08:45:41.85Z</time></trkpt><trkpt lat="39.83345219671229" lon="9.4415617994775"><ele>719.4</ele><time>2026-04-29T08:45:42.85Z</time></trkpt><trkpt lat="39.83354495711187" lon="9.441651145839595"><ele>720.1999999999999</ele><time>2026-04-29T08:45:43.85Z</time></trkpt><trkpt lat="39.833627376798304" lon="9.441722621590745"><ele>721.0</ele><time>2026-04-29T08:45:44.85Z</time></trkpt><trkpt lat="39.83369213941539" lon="9.441798022991417"><ele>721.1666666666667</ele><time>2026-04-29T08:45:45.85Z</time></trkpt><trkpt lat="39.83376082012774" lon="9.441828827665534"><ele>721.3333333333334</ele><time>2026-04-29T08:45:46.85Z</time></trkpt><trkpt lat="39.83385033431823" lon="9.441814089521962"><ele>721.5</ele><time>2026-04-29T08:45:47.85Z</time></trkpt><trkpt lat="39.83393624187987" lon="9.441750400794215"><ele>721.6666666666666</ele><time>2026-04-29T08:45:48.85Z</time></trkpt><trkpt lat="39.83402138219989" lon="9.441734336145249"><ele>721.8333333333333</ele><time>2026-04-29T08:45:49.85Z</time></trkpt><trkpt lat="39.83410119999889" lon="9.441711739786488"><ele>722.0</ele><time>2026-04-29T08:45:50.85Z</time></trkpt><trkpt lat="39.834177766471555" lon="9.441706805468593"><ele>722.0</ele><time>2026-04-29T08:45:51.85Z</time></trkpt><trkpt lat="39.83424993512392" lon="9.441785551398134"><ele>722.0</ele><time>2026-04-29T08:45:52.85Z</time></trkpt><trkpt lat="39.834322523515766" lon="9.441852555760809"><ele>722.0</ele><time>2026-04-29T08:45:53.85Z</time></trkpt><trkpt lat="39.83440884313726" lon="9.441942673960202"><ele>722.0</ele><time>2026-04-29T08:45:54.85Z</time></trkpt><trkpt lat="39.83449479054974" lon="9.44203961463683"><ele>722.0</ele><time>2026-04-29T08:45:55.85Z</time></trkpt><trkpt lat="39.83455809802642" lon="9.442166565274826"><ele>723.75</ele><time>2026-04-29T08:45:56.85Z</time></trkpt><trkpt lat="39.83460964459754" lon="9.442303066755933"><ele>725.5</ele><time>2026-04-29T08:45:57.85Z</time></trkpt><trkpt lat="39.834654029881676" lon="9.442448403064034"><ele>727.25</ele><time>2026-04-29T08:45:58.85Z</time></trkpt><trkpt lat="39.834669535728146" lon="9.44259790115446"><ele>729.0</ele><time>2026-04-29T08:45:59.85Z</time></trkpt><trkpt lat="39.834678872758175" lon="9.442768449302854"><ele>729.0</ele><time>2026-04-29T08:46:00.85Z</time></trkpt><trkpt lat="39.834684409140564" lon="9.442942429078046"><ele>729.0</ele><time>2026-04-29T08:46:01.85Z</time></trkpt><trkpt lat="39.83467892546763" lon="9.443111924855424"><ele>729.0</ele><time>2026-04-29T08:46:02.85Z</time></trkpt><trkpt lat="39.83467917837889" lon="9.443308173005018"><ele>729.0</ele><time>2026-04-29T08:46:03.85Z</time></trkpt><trkpt lat="39.8346800017519" lon="9.443494051988608"><ele>729.25</ele><time>2026-04-29T08:46:04.85Z</time></trkpt><trkpt lat="39.834683380700646" lon="9.443683728143311"><ele>729.5</ele><time>2026-04-29T08:46:05.85Z</time></trkpt><trkpt lat="39.8346922477308" lon="9.443863356954315"><ele>729.75</ele><time>2026-04-29T08:46:06.85Z</time></trkpt><trkpt lat="39.834696718574286" lon="9.444040276066596"><ele>730.0</ele><time>2026-04-29T08:46:07.85Z</time></trkpt><trkpt lat="39.83470488984153" lon="9.444199569957132"><ele>730.0</ele><time>2026-04-29T08:46:08.85Z</time></trkpt><trkpt lat="39.83472867662388" lon="9.444347131455366"><ele>730.0</ele><time>2026-04-29T08:46:09.85Z</time></trkpt><trkpt lat="39.83476639286909" lon="9.444484474339696"><ele>730.0</ele><time>2026-04-29T08:46:10.85Z</time></trkpt><trkpt lat="39.83481084404229" lon="9.444619044368276"><ele>730.0</ele><time>2026-04-29T08:46:11.85Z</time></trkpt><trkpt lat="39.834871940006806" lon="9.444737712897362"><ele>730.0</ele><time>2026-04-29T08:46:12.85Z</time></trkpt><trkpt lat="39.834958008183406" lon="9.444860103591399"><ele>730.0</ele><time>2026-04-29T08:46:13.85Z</time></trkpt><trkpt lat="39.83501851432996" lon="9.445034462126074"><ele>730.0</ele><time>2026-04-29T08:46:14.85Z</time></trkpt><trkpt lat="39.8351052249699" lon="9.44516857488295"><ele>730.0</ele><time>2026-04-29T08:46:15.85Z</time></trkpt><trkpt lat="39.83517798805646" lon="9.445320521095294"><ele>733.75</ele><time>2026-04-29T08:46:16.85Z</time></trkpt><trkpt lat="39.835243986161004" lon="9.445489646503022"><ele>737.5</ele><time>2026-04-29T08:46:17.85Z</time></trkpt><trkpt lat="39.83531193685639" lon="9.445657456415328"><ele>741.25</ele><time>2026-04-29T08:46:18.85Z</time></trkpt><trkpt lat="39.83538565673428" lon="9.445829601651415"><ele>745.0</ele><time>2026-04-29T08:46:19.85Z</time></trkpt><trkpt lat="39.835457406912454" lon="9.446001000858061"><ele>745.0</ele><time>2026-04-29T08:46:20.85Z</time></trkpt><trkpt lat="39.83553326540894" lon="9.446166229289148"><ele>745.0</ele><time>2026-04-29T08:46:21.85Z</time></trkpt><trkpt lat="39.83561041742272" lon="9.446309572671096"><ele>745.0</ele><time>2026-04-29T08:46:22.85Z</time></trkpt><trkpt lat="39.835680967286216" lon="9.446437697904837"><ele>745.0</ele><time>2026-04-29T08:46:23.85Z</time></trkpt><trkpt lat="39.835738821811184" lon="9.446566692489695"><ele>743.4</ele><time>2026-04-29T08:46:24.85Z</time></trkpt><trkpt lat="39.835772709649774" lon="9.446708683765705"><ele>741.8</ele><time>2026-04-29T08:46:25.85Z</time></trkpt><trkpt lat="39.83578798161365" lon="9.446857835236463"><ele>740.2</ele><time>2026-04-29T08:46:26.85Z</time></trkpt><trkpt lat="39.83581967446176" lon="9.44698113887489"><ele>738.6</ele><time>2026-04-29T08:46:27.85Z</time></trkpt><trkpt lat="39.835870918668554" lon="9.447105507360238"><ele>737.0</ele><time>2026-04-29T08:46:28.85Z</time></trkpt><trkpt lat="39.835941613648565" lon="9.44723301223597"><ele>740.75</ele><time>2026-04-29T08:46:29.85Z</time></trkpt><trkpt lat="39.836022609166946" lon="9.447347030029063"><ele>744.5</ele><time>2026-04-29T08:46:30.85Z</time></trkpt><trkpt lat="39.83610901120043" lon="9.447475530243977"><ele>748.25</ele><time>2026-04-29T08:46:31.85Z</time></trkpt><trkpt lat="39.83619319290388" lon="9.447600123028288"><ele>752.0</ele><time>2026-04-29T08:46:32.85Z</time></trkpt><trkpt lat="39.83628616129964" lon="9.447725734244887"><ele>752.0</ele><time>2026-04-29T08:46:33.85Z</time></trkpt><trkpt lat="39.836357154795536" lon="9.447858859386997"><ele>752.0</ele><time>2026-04-29T08:46:34.849Z</time></trkpt><trkpt lat="39.83642560877421" lon="9.44801263152988"><ele>752.0</ele><time>2026-04-29T08:46:35.849Z</time></trkpt><trkpt lat="39.83650220670409" lon="9.448170746915043"><ele>752.0</ele><time>2026-04-29T08:46:36.849Z</time></trkpt><trkpt lat="39.83657686400557" lon="9.448348983168604"><ele>755.0</ele><time>2026-04-29T08:46:37.849Z</time></trkpt><trkpt lat="39.83666372948764" lon="9.448518541924841"><ele>758.0</ele><time>2026-04-29T08:46:38.849Z</time></trkpt><trkpt lat="39.836749216628334" lon="9.448687501488946"><ele>761.0</ele><time>2026-04-29T08:46:39.849Z</time></trkpt><trkpt lat="39.83682790930179" lon="9.448866479715283"><ele>761.0</ele><time>2026-04-29T08:46:40.849Z</time></trkpt><trkpt lat="39.83690497935323" lon="9.449047695466273"><ele>761.0</ele><time>2026-04-29T08:46:41.849Z</time></trkpt><trkpt lat="39.83698949711604" lon="9.449218962965404"><ele>761.0</ele><time>2026-04-29T08:46:42.849Z</time></trkpt><trkpt lat="39.83708005866646" lon="9.449394159550941"><ele>761.0</ele><time>2026-04-29T08:46:43.849Z</time></trkpt><trkpt lat="39.8371712111885" lon="9.449566387222909"><ele>761.0</ele><time>2026-04-29T08:46:44.849Z</time></trkpt><trkpt lat="39.837268467177395" lon="9.449729127164227"><ele>761.0</ele><time>2026-04-29T08:46:45.849Z</time></trkpt><trkpt lat="39.83736019117885" lon="9.449893495036697"><ele>761.75</ele><time>2026-04-29T08:46:46.849Z</time></trkpt><trkpt lat="39.837449390292015" lon="9.450048517756569"><ele>762.5</ele><time>2026-04-29T08:46:47.849Z</time></trkpt><trkpt lat="39.837540342046914" lon="9.450176416868471"><ele>763.25</ele><time>2026-04-29T08:46:48.849Z</time></trkpt><trkpt lat="39.83764872874821" lon="9.450300478777615"><ele>764.0</ele><time>2026-04-29T08:46:49.849Z</time></trkpt><trkpt lat="39.83776489096389" lon="9.450403940431576"><ele>760.5</ele><time>2026-04-29T08:46:50.849Z</time></trkpt><trkpt lat="39.83789444343299" lon="9.450480428724097"><ele>757.0</ele><time>2026-04-29T08:46:51.849Z</time></trkpt><trkpt lat="39.83803283493228" lon="9.450542954410805"><ele>753.5</ele><time>2026-04-29T08:46:52.849Z</time></trkpt><trkpt lat="39.83816859348662" lon="9.450607973469285"><ele>750.0</ele><time>2026-04-29T08:46:53.849Z</time></trkpt><trkpt lat="39.838316163440055" lon="9.450675935778467"><ele>750.0</ele><time>2026-04-29T08:46:54.849Z</time></trkpt><trkpt lat="39.8384559987843" lon="9.450753673789812"><ele>750.0</ele><time>2026-04-29T08:46:55.849Z</time></trkpt><trkpt lat="39.838602045181084" lon="9.450839128575149"><ele>750.0</ele><time>2026-04-29T08:46:56.849Z</time></trkpt><trkpt lat="39.83872238263259" lon="9.45093518641355"><ele>750.25</ele><time>2026-04-29T08:46:57.849Z</time></trkpt><trkpt lat="39.838830824976796" lon="9.451045959971308"><ele>750.5</ele><time>2026-04-29T08:46:58.849Z</time></trkpt><trkpt lat="39.838929012722076" lon="9.451178626978491"><ele>750.75</ele><time>2026-04-29T08:46:59.849Z</time></trkpt><trkpt lat="39.83902154087565" lon="9.451318315879337"><ele>751.0</ele><time>2026-04-29T08:47:00.849Z</time></trkpt><trkpt lat="39.83910482334095" lon="9.451446036537396"><ele>751.0</ele><time>2026-04-29T08:47:01.849Z</time></trkpt><trkpt lat="39.83917935465018" lon="9.451549474711713"><ele>751.0</ele><time>2026-04-29T08:47:02.849Z</time></trkpt><trkpt lat="39.83927347300744" lon="9.451613068244015"><ele>751.0</ele><time>2026-04-29T08:47:03.849Z</time></trkpt><trkpt lat="39.839365151188666" lon="9.451639637036767"><ele>751.0</ele><time>2026-04-29T08:47:04.849Z</time></trkpt><trkpt lat="39.8394772487689" lon="9.451639536753332"><ele>751.0</ele><time>2026-04-29T08:47:05.849Z</time></trkpt><trkpt lat="39.83959292985632" lon="9.451618704580127"><ele>751.5</ele><time>2026-04-29T08:47:06.849Z</time></trkpt><trkpt lat="39.83970347983445" lon="9.4515940099309"><ele>752.0</ele><time>2026-04-29T08:47:07.849Z</time></trkpt><trkpt lat="39.83982116813413" lon="9.451572144848956"><ele>752.5</ele><time>2026-04-29T08:47:08.849Z</time></trkpt><trkpt lat="39.83994062018814" lon="9.451582733255334"><ele>753.0</ele><time>2026-04-29T08:47:09.848Z</time></trkpt><trkpt lat="39.840060830631955" lon="9.451630130678856"><ele>755.25</ele><time>2026-04-29T08:47:10.848Z</time></trkpt><trkpt lat="39.84017033446287" lon="9.451686183394896"><ele>757.5</ele><time>2026-04-29T08:47:11.848Z</time></trkpt><trkpt lat="39.840283901490835" lon="9.451766485201901"><ele>759.75</ele><time>2026-04-29T08:47:12.849Z</time></trkpt><trkpt lat="39.84038875149381" lon="9.451862810833044"><ele>762.0</ele><time>2026-04-29T08:47:13.849Z</time></trkpt><trkpt lat="39.84051581308744" lon="9.451966336096739"><ele>762.0</ele><time>2026-04-29T08:47:14.848Z</time></trkpt><trkpt lat="39.84064072510039" lon="9.452076665299693"><ele>762.0</ele><time>2026-04-29T08:47:15.848Z</time></trkpt><trkpt lat="39.840762137243374" lon="9.452181519027107"><ele>762.0</ele><time>2026-04-29T08:47:16.848Z</time></trkpt><trkpt lat="39.84088948166847" lon="9.452286014678263"><ele>762.0</ele><time>2026-04-29T08:47:17.848Z</time></trkpt><trkpt lat="39.841022341783464" lon="9.45238259666454"><ele>762.3333333333334</ele><time>2026-04-29T08:47:18.848Z</time></trkpt><trkpt lat="39.84116527325283" lon="9.45247614079251"><ele>762.6666666666667</ele><time>2026-04-29T08:47:19.849Z</time></trkpt><trkpt lat="39.841318953417414" lon="9.45256527706887"><ele>763.0</ele><time>2026-04-29T08:47:20.849Z</time></trkpt><trkpt lat="39.84146224426151" lon="9.452662605125239"><ele>763.0</ele><time>2026-04-29T08:47:21.849Z</time></trkpt><trkpt lat="39.8416012679039" lon="9.45277413104714"><ele>763.0</ele><time>2026-04-29T08:47:22.848Z</time></trkpt><trkpt lat="39.841745509675555" lon="9.452885186326974"><ele>763.0</ele><time>2026-04-29T08:47:23.848Z</time></trkpt><trkpt lat="39.84187905708545" lon="9.453012092699522"><ele>764.0</ele><time>2026-04-29T08:47:24.848Z</time></trkpt><trkpt lat="39.84200168112513" lon="9.453146137694931"><ele>765.0</ele><time>2026-04-29T08:47:25.848Z</time></trkpt><trkpt lat="39.84213965656529" lon="9.453285997741467"><ele>766.0</ele><time>2026-04-29T08:47:26.848Z</time></trkpt><trkpt lat="39.84227792523277" lon="9.453400771124675"><ele>766.0</ele><time>2026-04-29T08:47:27.848Z</time></trkpt><trkpt lat="39.84240600303417" lon="9.453523565275896"><ele>766.0</ele><time>2026-04-29T08:47:28.848Z</time></trkpt><trkpt lat="39.842537105859215" lon="9.453625007696276"><ele>766.0</ele><time>2026-04-29T08:47:29.848Z</time></trkpt><trkpt lat="39.84267172331664" lon="9.453727493411908"><ele>764.25</ele><time>2026-04-29T08:47:30.848Z</time></trkpt><trkpt lat="39.84280906542404" lon="9.45380037570233"><ele>762.5</ele><time>2026-04-29T08:47:31.848Z</time></trkpt><trkpt lat="39.842953706132135" lon="9.453862159602664"><ele>760.75</ele><time>2026-04-29T08:47:32.848Z</time></trkpt><trkpt lat="39.843092530756586" lon="9.453928284467544"><ele>759.0</ele><time>2026-04-29T08:47:33.848Z</time></trkpt><trkpt lat="39.843224412203156" lon="9.45401851710957"><ele>759.0</ele><time>2026-04-29T08:47:34.848Z</time></trkpt><trkpt lat="39.843354258299726" lon="9.454133499767954"><ele>759.0</ele><time>2026-04-29T08:47:35.848Z</time></trkpt><trkpt lat="39.84347652820625" lon="9.454256282282978"><ele>759.0</ele><time>2026-04-29T08:47:36.848Z</time></trkpt><trkpt lat="39.84360310732418" lon="9.454379484293238"><ele>760.0</ele><time>2026-04-29T08:47:37.848Z</time></trkpt><trkpt lat="39.84373635473629" lon="9.454506616979609"><ele>761.0</ele><time>2026-04-29T08:47:38.848Z</time></trkpt><trkpt lat="39.843869122850855" lon="9.45462745180702"><ele>762.0</ele><time>2026-04-29T08:47:39.848Z</time></trkpt><trkpt lat="39.84399994739094" lon="9.454742199759249"><ele>762.0</ele><time>2026-04-29T08:47:40.848Z</time></trkpt><trkpt lat="39.84413458456867" lon="9.454863901421113"><ele>762.0</ele><time>2026-04-29T08:47:41.848Z</time></trkpt><trkpt lat="39.844269292872816" lon="9.45496690984905"><ele>762.0</ele><time>2026-04-29T08:47:42.848Z</time></trkpt><trkpt lat="39.84440081834128" lon="9.455067810911384"><ele>770.3333333333333</ele><time>2026-04-29T08:47:43.848Z</time></trkpt><trkpt lat="39.84454267576688" lon="9.455164013341232"><ele>778.6666666666666</ele><time>2026-04-29T08:47:44.848Z</time></trkpt><trkpt lat="39.84468267414233" lon="9.455256876921602"><ele>787.0</ele><time>2026-04-29T08:47:45.848Z</time></trkpt><trkpt lat="39.84481318372615" lon="9.455360599567145"><ele>785.0</ele><time>2026-04-29T08:47:46.848Z</time></trkpt><trkpt lat="39.84494038055365" lon="9.455499597447691"><ele>783.0</ele><time>2026-04-29T08:47:47.848Z</time></trkpt><trkpt lat="39.845055786016914" lon="9.455612290388116"><ele>781.0</ele><time>2026-04-29T08:47:48.848Z</time></trkpt><trkpt lat="39.84518775592594" lon="9.455714912309038"><ele>781.0</ele><time>2026-04-29T08:47:49.848Z</time></trkpt><trkpt lat="39.84532280903082" lon="9.455814969895927"><ele>781.0</ele><time>2026-04-29T08:47:50.848Z</time></trkpt><trkpt lat="39.84544677217131" lon="9.455922258117852"><ele>781.0</ele><time>2026-04-29T08:47:51.848Z</time></trkpt><trkpt lat="39.8455556855952" lon="9.45605196283627"><ele>781.0</ele><time>2026-04-29T08:47:52.848Z</time></trkpt><trkpt lat="39.84565110514446" lon="9.456182645125809"><ele>781.0</ele><time>2026-04-29T08:47:53.848Z</time></trkpt><trkpt lat="39.8457460508123" lon="9.45627865985286"><ele>781.0</ele><time>2026-04-29T08:47:54.848Z</time></trkpt><trkpt lat="39.84585945324446" lon="9.456357334646727"><ele>781.0</ele><time>2026-04-29T08:47:55.848Z</time></trkpt><trkpt lat="39.84597890013221" lon="9.456425010425734"><ele>779.75</ele><time>2026-04-29T08:47:56.848Z</time></trkpt><trkpt lat="39.84610062679602" lon="9.456479655424898"><ele>778.5</ele><time>2026-04-29T08:47:57.848Z</time></trkpt><trkpt lat="39.846234502157195" lon="9.456517954767632"><ele>777.25</ele><time>2026-04-29T08:47:58.848Z</time></trkpt><trkpt lat="39.846371785699446" lon="9.456557595423641"><ele>776.0</ele><time>2026-04-29T08:47:59.848Z</time></trkpt><trkpt lat="39.84650517760348" lon="9.456595715791163"><ele>776.0</ele><time>2026-04-29T08:48:00.848Z</time></trkpt><trkpt lat="39.84661214537562" lon="9.456642121316005"><ele>776.0</ele><time>2026-04-29T08:48:01.848Z</time></trkpt><trkpt lat="39.84670060997465" lon="9.456712820601492"><ele>776.0</ele><time>2026-04-29T08:48:02.847Z</time></trkpt><trkpt lat="39.846777253763605" lon="9.456809087442432"><ele>776.0</ele><time>2026-04-29T08:48:03.847Z</time></trkpt><trkpt lat="39.84681401125952" lon="9.45694091156293"><ele>776.0</ele><time>2026-04-29T08:48:04.847Z</time></trkpt><trkpt lat="39.84687403461593" lon="9.457054164988099"><ele>776.0</ele><time>2026-04-29T08:48:05.847Z</time></trkpt><trkpt lat="39.84696373296833" lon="9.457134397438782"><ele>776.0</ele><time>2026-04-29T08:48:06.847Z</time></trkpt><trkpt lat="39.84705871551052" lon="9.457192594827314"><ele>776.0</ele><time>2026-04-29T08:48:07.847Z</time></trkpt><trkpt lat="39.84715655090304" lon="9.457219879659759"><ele>776.0</ele><time>2026-04-29T08:48:08.847Z</time></trkpt><trkpt lat="39.84726343321269" lon="9.45723460818412"><ele>776.0</ele><time>2026-04-29T08:48:09.847Z</time></trkpt><trkpt lat="39.847383691249135" lon="9.457251522767063"><ele>776.0</ele><time>2026-04-29T08:48:10.847Z</time></trkpt><trkpt lat="39.84750962991755" lon="9.457275105165293"><ele>776.0</ele><time>2026-04-29T08:48:11.847Z</time></trkpt><trkpt lat="39.84762456868585" lon="9.457331868193348"><ele>776.0</ele><time>2026-04-29T08:48:12.847Z</time></trkpt><trkpt lat="39.84773552344966" lon="9.457412749626094"><ele>776.0</ele><time>2026-04-29T08:48:13.847Z</time></trkpt><trkpt lat="39.847822824829365" lon="9.457533888086552"><ele>777.25</ele><time>2026-04-29T08:48:14.847Z</time></trkpt><trkpt lat="39.847910888424856" lon="9.457667177670954"><ele>778.5</ele><time>2026-04-29T08:48:15.847Z</time></trkpt><trkpt lat="39.847998131705104" lon="9.457807643074394"><ele>779.75</ele><time>2026-04-29T08:48:16.847Z</time></trkpt><trkpt lat="39.84809954970706" lon="9.457955583227971"><ele>781.0</ele><time>2026-04-29T08:48:17.847Z</time></trkpt><trkpt lat="39.848199716320835" lon="9.458095633891192"><ele>781.0</ele><time>2026-04-29T08:48:18.847Z</time></trkpt><trkpt lat="39.848306513354956" lon="9.458224661431997"><ele>781.0</ele><time>2026-04-29T08:48:19.847Z</time></trkpt><trkpt lat="39.848424825803605" lon="9.458346225712978"><ele>781.0</ele><time>2026-04-29T08:48:20.847Z</time></trkpt><trkpt lat="39.84855887654899" lon="9.45846367101098"><ele>782.6666666666666</ele><time>2026-04-29T08:48:21.847Z</time></trkpt><trkpt lat="39.848693489002066" lon="9.458567645619988"><ele>784.3333333333333</ele><time>2026-04-29T08:48:22.847Z</time></trkpt><trkpt lat="39.84882754067003" lon="9.458661631596186"><ele>786.0</ele><time>2026-04-29T08:48:23.847Z</time></trkpt><trkpt lat="39.84897611124388" lon="9.458774258323489"><ele>785.0</ele><time>2026-04-29T08:48:24.847Z</time></trkpt><trkpt lat="39.84912168174953" lon="9.45887175583573"><ele>784.0</ele><time>2026-04-29T08:48:25.847Z</time></trkpt><trkpt lat="39.84926655601497" lon="9.458975976205865"><ele>783.0</ele><time>2026-04-29T08:48:26.847Z</time></trkpt><trkpt lat="39.84940605188227" lon="9.459077617942226"><ele>783.0</ele><time>2026-04-29T08:48:27.847Z</time></trkpt><trkpt lat="39.84955133618162" lon="9.459169764040805"><ele>783.0</ele><time>2026-04-29T08:48:28.847Z</time></trkpt><trkpt lat="39.84969305746543" lon="9.459262395887011"><ele>783.0</ele><time>2026-04-29T08:48:29.847Z</time></trkpt><trkpt lat="39.84982940033617" lon="9.459351033751814"><ele>783.0</ele><time>2026-04-29T08:48:30.847Z</time></trkpt><trkpt lat="39.84996513539121" lon="9.459419965731174"><ele>783.0</ele><time>2026-04-29T08:48:31.847Z</time></trkpt><trkpt lat="39.85010414519225" lon="9.459486683497586"><ele>783.0</ele><time>2026-04-29T08:48:32.847Z</time></trkpt><trkpt lat="39.850245969432" lon="9.459551621125831"><ele>783.0</ele><time>2026-04-29T08:48:33.847Z</time></trkpt><trkpt lat="39.85038634161496" lon="9.459619302135463"><ele>782.25</ele><time>2026-04-29T08:48:34.847Z</time></trkpt><trkpt lat="39.850526247381104" lon="9.459684660423783"><ele>781.5</ele><time>2026-04-29T08:48:35.847Z</time></trkpt><trkpt lat="39.85065626627927" lon="9.45975822353755"><ele>780.75</ele><time>2026-04-29T08:48:36.847Z</time></trkpt><trkpt lat="39.8507909515641" lon="9.459837433491758"><ele>780.0</ele><time>2026-04-29T08:48:37.847Z</time></trkpt><trkpt lat="39.85092135089956" lon="9.459929775715684"><ele>783.0</ele><time>2026-04-29T08:48:38.847Z</time></trkpt><trkpt lat="39.85104523304912" lon="9.460039790413202"><ele>786.0</ele><time>2026-04-29T08:48:39.847Z</time></trkpt><trkpt lat="39.851169982570006" lon="9.460162138529885"><ele>789.0</ele><time>2026-04-29T08:48:40.847Z</time></trkpt><trkpt lat="39.851294011777355" lon="9.460289973312726"><ele>789.0</ele><time>2026-04-29T08:48:41.847Z</time></trkpt><trkpt lat="39.8514250620148" lon="9.460407923832017"><ele>789.0</ele><time>2026-04-29T08:48:42.847Z</time></trkpt><trkpt lat="39.85155879625096" lon="9.460524828092339"><ele>789.0</ele><time>2026-04-29T08:48:43.847Z</time></trkpt><trkpt lat="39.8516927885551" lon="9.460644831764846"><ele>787.0</ele><time>2026-04-29T08:48:44.847Z</time></trkpt><trkpt lat="39.851822847325565" lon="9.460768226917432"><ele>785.0</ele><time>2026-04-29T08:48:45.847Z</time></trkpt><trkpt lat="39.85195286758923" lon="9.460894397431767"><ele>783.0</ele><time>2026-04-29T08:48:46.847Z</time></trkpt><trkpt lat="39.85208500883705" lon="9.461021299222343"><ele>783.0</ele><time>2026-04-29T08:48:47.847Z</time></trkpt><trkpt lat="39.85221990623222" lon="9.46115220729177"><ele>783.0</ele><time>2026-04-29T08:48:48.847Z</time></trkpt><trkpt lat="39.85235245305045" lon="9.461277169395208"><ele>783.0</ele><time>2026-04-29T08:48:49.847Z</time></trkpt><trkpt lat="39.8524852861078" lon="9.461406148045901"><ele>783.0</ele><time>2026-04-29T08:48:50.847Z</time></trkpt><trkpt lat="39.85261232732082" lon="9.461531506718313"><ele>783.0</ele><time>2026-04-29T08:48:51.847Z</time></trkpt><trkpt lat="39.85274274462487" lon="9.461653424809096"><ele>783.0</ele><time>2026-04-29T08:48:52.847Z</time></trkpt><trkpt lat="39.852872860383684" lon="9.461780373831399"><ele>783.0</ele><time>2026-04-29T08:48:53.847Z</time></trkpt><trkpt lat="39.85300097623337" lon="9.461895729951843"><ele>783.0</ele><time>2026-04-29T08:48:54.847Z</time></trkpt><trkpt lat="39.85313366887639" lon="9.46201585769119"><ele>783.0</ele><time>2026-04-29T08:48:55.847Z</time></trkpt><trkpt lat="39.85326796980617" lon="9.4621316035986"><ele>783.6666666666667</ele><time>2026-04-29T08:48:56.847Z</time></trkpt><trkpt lat="39.85340543277784" lon="9.462243355953476"><ele>784.3333333333334</ele><time>2026-04-29T08:48:57.847Z</time></trkpt><trkpt lat="39.85354905246807" lon="9.462352085671254"><ele>785.0</ele><time>2026-04-29T08:48:58.847Z</time></trkpt><trkpt lat="39.85369162172842" lon="9.46245624340899"><ele>785.0</ele><time>2026-04-29T08:48:59.847Z</time></trkpt><trkpt lat="39.85383347735622" lon="9.462559948496525"><ele>785.0</ele><time>2026-04-29T08:49:00.847Z</time></trkpt><trkpt lat="39.853973411589834" lon="9.46266323995287"><ele>785.0</ele><time>2026-04-29T08:49:01.847Z</time></trkpt><trkpt lat="39.85411866858291" lon="9.462772095047999"><ele>785.0</ele><time>2026-04-29T08:49:02.847Z</time></trkpt><trkpt lat="39.85425803273347" lon="9.462879270119501"><ele>785.0</ele><time>2026-04-29T08:49:03.847Z</time></trkpt><trkpt lat="39.85439997414045" lon="9.462982602220418"><ele>785.0</ele><time>2026-04-29T08:49:04.847Z</time></trkpt><trkpt lat="39.854547999391386" lon="9.463084503478196"><ele>783.6666666666667</ele><time>2026-04-29T08:49:05.847Z</time></trkpt><trkpt lat="39.85469315545139" lon="9.463189494550809"><ele>782.3333333333333</ele><time>2026-04-29T08:49:06.847Z</time></trkpt><trkpt lat="39.85484094479517" lon="9.463295704572987"><ele>781.0</ele><time>2026-04-29T08:49:07.847Z</time></trkpt><trkpt lat="39.85498474687278" lon="9.463403525645713"><ele>783.6666666666666</ele><time>2026-04-29T08:49:08.847Z</time></trkpt><trkpt lat="39.85512902892898" lon="9.46351045845226"><ele>786.3333333333333</ele><time>2026-04-29T08:49:09.847Z</time></trkpt><trkpt lat="39.85527652206934" lon="9.463617253778573"><ele>789.0</ele><time>2026-04-29T08:49:10.847Z</time></trkpt><trkpt lat="39.855426362975464" lon="9.463727153403495"><ele>788.3333333333333</ele><time>2026-04-29T08:49:11.847Z</time></trkpt><trkpt lat="39.855580797352886" lon="9.463835049986985"><ele>787.6666666666666</ele><time>2026-04-29T08:49:12.847Z</time></trkpt><trkpt lat="39.85573248129463" lon="9.46394205051904"><ele>787.0</ele><time>2026-04-29T08:49:13.847Z</time></trkpt><trkpt lat="39.85587559052615" lon="9.46405495345709"><ele>786.3333333333333</ele><time>2026-04-29T08:49:14.847Z</time></trkpt><trkpt lat="39.85602474147007" lon="9.464172253152675"><ele>785.6666666666667</ele><time>2026-04-29T08:49:15.846Z</time></trkpt><trkpt lat="39.85618271444662" lon="9.464266857671367"><ele>785.0</ele><time>2026-04-29T08:49:16.846Z</time></trkpt><trkpt lat="39.85633516016661" lon="9.464377900297078"><ele>785.0</ele><time>2026-04-29T08:49:17.846Z</time></trkpt><trkpt lat="39.85648593754052" lon="9.464486133688766"><ele>785.0</ele><time>2026-04-29T08:49:18.846Z</time></trkpt><trkpt lat="39.85663803968243" lon="9.46459985092238"><ele>785.0</ele><time>2026-04-29T08:49:19.846Z</time></trkpt><trkpt lat="39.856785449478714" lon="9.464706239124325"><ele>787.3333333333334</ele><time>2026-04-29T08:49:20.845Z</time></trkpt><trkpt lat="39.85692632982056" lon="9.464819115163872"><ele>789.6666666666667</ele><time>2026-04-29T08:49:21.846Z</time></trkpt><trkpt lat="39.8570699637484" lon="9.464921773281148"><ele>792.0</ele><time>2026-04-29T08:49:22.845Z</time></trkpt><trkpt lat="39.857208434692865" lon="9.465008681028321"><ele>792.0</ele><time>2026-04-29T08:49:23.845Z</time></trkpt><trkpt lat="39.85734879646262" lon="9.465092607700072"><ele>792.0</ele><time>2026-04-29T08:49:24.846Z</time></trkpt><trkpt lat="39.85747578964878" lon="9.465182869419168"><ele>792.0</ele><time>2026-04-29T08:49:25.845Z</time></trkpt><trkpt lat="39.85761798703694" lon="9.46524293295731"><ele>792.0</ele><time>2026-04-29T08:49:26.845Z</time></trkpt><trkpt lat="39.85775231109942" lon="9.4653080838515"><ele>791.75</ele><time>2026-04-29T08:49:27.845Z</time></trkpt><trkpt lat="39.85788059382252" lon="9.46538244853048"><ele>791.5</ele><time>2026-04-29T08:49:28.846Z</time></trkpt><trkpt lat="39.858004328377994" lon="9.46544697350037"><ele>791.25</ele><time>2026-04-29T08:49:29.846Z</time></trkpt><trkpt lat="39.85812898772694" lon="9.465511021309245"><ele>791.0</ele><time>2026-04-29T08:49:30.846Z</time></trkpt><trkpt lat="39.85825047976285" lon="9.465564164264698"><ele>791.0</ele><time>2026-04-29T08:49:31.846Z</time></trkpt><trkpt lat="39.85837130960234" lon="9.465598401803188"><ele>791.0</ele><time>2026-04-29T08:49:32.846Z</time></trkpt><trkpt lat="39.858487635936456" lon="9.465637802694616"><ele>791.0</ele><time>2026-04-29T08:49:33.846Z</time></trkpt><trkpt lat="39.8585919252277" lon="9.46569006242276"><ele>791.0</ele><time>2026-04-29T08:49:34.846Z</time></trkpt><trkpt lat="39.858670999346145" lon="9.465749936345459"><ele>791.0</ele><time>2026-04-29T08:49:35.846Z</time></trkpt><trkpt lat="39.858741206611924" lon="9.465814720066666"><ele>791.5000000000001</ele><time>2026-04-29T08:49:36.846Z</time></trkpt><trkpt lat="39.85881036712461" lon="9.465874695514682"><ele>792.0</ele><time>2026-04-29T08:49:37.845Z</time></trkpt><trkpt lat="39.85890884855064" lon="9.465931895145621"><ele>792.5</ele><time>2026-04-29T08:49:39.845Z</time></trkpt><trkpt lat="39.858976236834295" lon="9.465968421348329"><ele>793.0</ele><time>2026-04-29T08:49:41.845Z</time></trkpt><trkpt lat="39.85907138212998" lon="9.465998555513249"><ele>793.5000000000001</ele><time>2026-04-29T08:49:43.845Z</time></trkpt><trkpt lat="39.85913741108719" lon="9.466011273705321"><ele>794.0</ele><time>2026-04-29T08:49:44.845Z</time></trkpt><trkpt lat="39.85922319452338" lon="9.466028984512766"><ele>796.2</ele><time>2026-04-29T08:49:45.845Z</time></trkpt><trkpt lat="39.859308817255474" lon="9.46604448040576"><ele>798.4000000000001</ele><time>2026-04-29T08:49:46.845Z</time></trkpt><trkpt lat="39.85939824398002" lon="9.466047908794168"><ele>800.6</ele><time>2026-04-29T08:49:47.845Z</time></trkpt><trkpt lat="39.85949806526812" lon="9.466060568227137"><ele>802.8</ele><time>2026-04-29T08:49:48.845Z</time></trkpt><trkpt lat="39.85960698151793" lon="9.466076145575798"><ele>805.0</ele><time>2026-04-29T08:49:49.845Z</time></trkpt><trkpt lat="39.85971996575581" lon="9.466101822456308"><ele>805.0</ele><time>2026-04-29T08:49:50.845Z</time></trkpt><trkpt lat="39.859830151671474" lon="9.466134972380765"><ele>805.0</ele><time>2026-04-29T08:49:51.845Z</time></trkpt><trkpt lat="39.85993763422351" lon="9.46616495977084"><ele>805.0</ele><time>2026-04-29T08:49:52.845Z</time></trkpt><trkpt lat="39.86003877936669" lon="9.466204440312858"><ele>805.0</ele><time>2026-04-29T08:49:53.845Z</time></trkpt><trkpt lat="39.860124765670285" lon="9.466251573488893"><ele>805.0</ele><time>2026-04-29T08:49:54.845Z</time></trkpt><trkpt lat="39.86021588313456" lon="9.466331653860722"><ele>805.0</ele><time>2026-04-29T08:49:55.845Z</time></trkpt><trkpt lat="39.86031416040809" lon="9.46641779716349"><ele>805.0</ele><time>2026-04-29T08:49:56.845Z</time></trkpt><trkpt lat="39.86040916112972" lon="9.466504957057468"><ele>805.0</ele><time>2026-04-29T08:49:57.845Z</time></trkpt><trkpt lat="39.86050588746158" lon="9.46659569497959"><ele>805.0</ele><time>2026-04-29T08:49:58.845Z</time></trkpt><trkpt lat="39.86060422287643" lon="9.466687312726997"><ele>805.0</ele><time>2026-04-29T08:49:59.845Z</time></trkpt><trkpt lat="39.86070818814805" lon="9.466773101749398"><ele>805.0</ele><time>2026-04-29T08:50:00.845Z</time></trkpt><trkpt lat="39.86081843765502" lon="9.466857418754932"><ele>805.0</ele><time>2026-04-29T08:50:01.845Z</time></trkpt><trkpt lat="39.86093089700202" lon="9.466934383681576"><ele>805.0</ele><time>2026-04-29T08:50:02.845Z</time></trkpt><trkpt lat="39.861045166916014" lon="9.466996523351385"><ele>802.25</ele><time>2026-04-29T08:50:03.845Z</time></trkpt><trkpt lat="39.86116964591596" lon="9.467041152855243"><ele>799.5</ele><time>2026-04-29T08:50:04.845Z</time></trkpt><trkpt lat="39.86130091101796" lon="9.467082613494245"><ele>796.75</ele><time>2026-04-29T08:50:05.845Z</time></trkpt><trkpt lat="39.86143374133232" lon="9.467106740669461"><ele>794.0</ele><time>2026-04-29T08:50:06.845Z</time></trkpt><trkpt lat="39.86156763472089" lon="9.467127754260986"><ele>794.0</ele><time>2026-04-29T08:50:07.845Z</time></trkpt><trkpt lat="39.86170032586793" lon="9.467149873700684"><ele>794.0</ele><time>2026-04-29T08:50:08.845Z</time></trkpt><trkpt lat="39.86183890970301" lon="9.467169892136486"><ele>794.0</ele><time>2026-04-29T08:50:09.845Z</time></trkpt><trkpt lat="39.86197449330983" lon="9.467189327277318"><ele>794.0</ele><time>2026-04-29T08:50:10.845Z</time></trkpt><trkpt lat="39.8620970951542" lon="9.467212614513718"><ele>797.25</ele><time>2026-04-29T08:50:11.845Z</time></trkpt><trkpt lat="39.862217324284785" lon="9.467260189881504"><ele>800.5</ele><time>2026-04-29T08:50:12.845Z</time></trkpt><trkpt lat="39.86233321360216" lon="9.46726681082052"><ele>803.75</ele><time>2026-04-29T08:50:13.845Z</time></trkpt><trkpt lat="39.862441653165206" lon="9.467282581543085"><ele>807.0</ele><time>2026-04-29T08:50:14.845Z</time></trkpt><trkpt lat="39.86255289045722" lon="9.467298253774187"><ele>807.75</ele><time>2026-04-29T08:50:15.845Z</time></trkpt><trkpt lat="39.862660808320044" lon="9.467303168291084"><ele>808.5</ele><time>2026-04-29T08:50:16.845Z</time></trkpt><trkpt lat="39.86278157470816" lon="9.467317898319012"><ele>809.25</ele><time>2026-04-29T08:50:17.845Z</time></trkpt><trkpt lat="39.86290143668034" lon="9.467325998045311"><ele>810.0</ele><time>2026-04-29T08:50:18.845Z</time></trkpt><trkpt lat="39.86300572196252" lon="9.467351111267266"><ele>810.0</ele><time>2026-04-29T08:50:19.845Z</time></trkpt><trkpt lat="39.86312178328346" lon="9.467351317971753"><ele>810.0</ele><time>2026-04-29T08:50:20.845Z</time></trkpt><trkpt lat="39.86323526482282" lon="9.467387626961496"><ele>810.0</ele><time>2026-04-29T08:50:21.845Z</time></trkpt><trkpt lat="39.86337228005311" lon="9.467405477329581"><ele>810.0</ele><time>2026-04-29T08:50:22.845Z</time></trkpt><trkpt lat="39.863532994556245" lon="9.467426415244809"><ele>813.3333333333333</ele><time>2026-04-29T08:50:23.845Z</time></trkpt><trkpt lat="39.863715213311664" lon="9.467450154739044"><ele>816.6666666666666</ele><time>2026-04-29T08:50:24.845Z</time></trkpt><trkpt lat="39.86391248889717" lon="9.467475567094837"><ele>820.0</ele><time>2026-04-29T08:50:25.845Z</time></trkpt><trkpt lat="39.86405808963326" lon="9.4674952425987"><ele>820.0</ele><time>2026-04-29T08:50:26.845Z</time></trkpt><trkpt lat="39.864185278137974" lon="9.467511001006145"><ele>820.0</ele><time>2026-04-29T08:50:27.845Z</time></trkpt><trkpt lat="39.864308278205606" lon="9.467507401133837"><ele>820.0</ele><time>2026-04-29T08:50:28.845Z</time></trkpt><trkpt lat="39.86443987321852" lon="9.467461134618189"><ele>820.0</ele><time>2026-04-29T08:50:29.845Z</time></trkpt><trkpt lat="39.86455748046023" lon="9.467393399265777"><ele>816.75</ele><time>2026-04-29T08:50:30.845Z</time></trkpt><trkpt lat="39.86466432985686" lon="9.46729612579727"><ele>813.5</ele><time>2026-04-29T08:50:31.845Z</time></trkpt><trkpt lat="39.86475172450758" lon="9.467175844892642"><ele>810.25</ele><time>2026-04-29T08:50:32.845Z</time></trkpt><trkpt lat="39.864813411881265" lon="9.467051974027637"><ele>807.0</ele><time>2026-04-29T08:50:33.845Z</time></trkpt><trkpt lat="39.86488725747791" lon="9.466913426649329"><ele>810.0</ele><time>2026-04-29T08:50:34.845Z</time></trkpt><trkpt lat="39.864959936522546" lon="9.466770982495827"><ele>813.0</ele><time>2026-04-29T08:50:35.845Z</time></trkpt><trkpt lat="39.865041535520035" lon="9.46662144573187"><ele>816.0</ele><time>2026-04-29T08:50:36.845Z</time></trkpt><trkpt lat="39.865132514899585" lon="9.466497912078093"><ele>819.0</ele><time>2026-04-29T08:50:37.845Z</time></trkpt><trkpt lat="39.865212891938576" lon="9.466355249666698"><ele>827.0</ele><time>2026-04-29T08:50:38.845Z</time></trkpt><trkpt lat="39.86532115294478" lon="9.466243308178816"><ele>835.0</ele><time>2026-04-29T08:50:39.845Z</time></trkpt><trkpt lat="39.86543873454857" lon="9.46616010820419"><ele>843.0</ele><time>2026-04-29T08:50:40.845Z</time></trkpt><trkpt lat="39.86555965314337" lon="9.466106529138148"><ele>851.0</ele><time>2026-04-29T08:50:41.845Z</time></trkpt><trkpt lat="39.8657008782984" lon="9.466085077236473"><ele>851.0</ele><time>2026-04-29T08:50:42.845Z</time></trkpt><trkpt lat="39.8658374078302" lon="9.466071244212301"><ele>851.0</ele><time>2026-04-29T08:50:43.845Z</time></trkpt><trkpt lat="39.86594980325848" lon="9.466063496742228"><ele>851.0</ele><time>2026-04-29T08:50:44.845Z</time></trkpt><trkpt lat="39.8660560564943" lon="9.4660557522266"><ele>851.0</ele><time>2026-04-29T08:50:45.845Z</time></trkpt><trkpt lat="39.86616928601332" lon="9.466040188409332"><ele>849.0</ele><time>2026-04-29T08:50:46.845Z</time></trkpt><trkpt lat="39.866288859342596" lon="9.466011575747645"><ele>847.0</ele><time>2026-04-29T08:50:47.845Z</time></trkpt><trkpt lat="39.86640839872865" lon="9.465959769163266"><ele>845.0</ele><time>2026-04-29T08:50:48.845Z</time></trkpt><trkpt lat="39.86652658656406" lon="9.465877756335027"><ele>843.0</ele><time>2026-04-29T08:50:49.845Z</time></trkpt><trkpt lat="39.866627746605815" lon="9.465762995435135"><ele>843.0</ele><time>2026-04-29T08:50:50.845Z</time></trkpt><trkpt lat="39.86673554489555" lon="9.46566286057492"><ele>843.0</ele><time>2026-04-29T08:50:51.845Z</time></trkpt><trkpt lat="39.866858898015344" lon="9.465568320247092"><ele>843.0</ele><time>2026-04-29T08:50:52.845Z</time></trkpt><trkpt lat="39.866971339137194" lon="9.465446319682368"><ele>843.0</ele><time>2026-04-29T08:50:53.845Z</time></trkpt><trkpt lat="39.86708895243591" lon="9.4653253991256"><ele>846.75</ele><time>2026-04-29T08:50:54.845Z</time></trkpt><trkpt lat="39.867208950712914" lon="9.465222967478427"><ele>850.5</ele><time>2026-04-29T08:50:55.845Z</time></trkpt><trkpt lat="39.86732238302145" lon="9.465113183915118"><ele>854.25</ele><time>2026-04-29T08:50:56.845Z</time></trkpt><trkpt lat="39.867438529353876" lon="9.46500481728291"><ele>858.0</ele><time>2026-04-29T08:50:57.845Z</time></trkpt><trkpt lat="39.86755699205123" lon="9.464892609707535"><ele>854.75</ele><time>2026-04-29T08:50:58.844Z</time></trkpt><trkpt lat="39.86767517034412" lon="9.464780284588947"><ele>851.5</ele><time>2026-04-29T08:50:59.844Z</time></trkpt><trkpt lat="39.86779247600932" lon="9.464671482155067"><ele>848.25</ele><time>2026-04-29T08:51:00.844Z</time></trkpt><trkpt lat="39.867910349567886" lon="9.464559642745044"><ele>845.0</ele><time>2026-04-29T08:51:01.844Z</time></trkpt><trkpt lat="39.8680254542721" lon="9.464455945969137"><ele>849.75</ele><time>2026-04-29T08:51:02.844Z</time></trkpt><trkpt lat="39.86813887500725" lon="9.464359624012188"><ele>854.5</ele><time>2026-04-29T08:51:03.844Z</time></trkpt><trkpt lat="39.86824838529217" lon="9.464272900111528"><ele>859.25</ele><time>2026-04-29T08:51:04.844Z</time></trkpt><trkpt lat="39.868361736344056" lon="9.464202367827006"><ele>864.0</ele><time>2026-04-29T08:51:05.844Z</time></trkpt><trkpt lat="39.86849826213884" lon="9.464167305642416"><ele>864.0</ele><time>2026-04-29T08:51:06.844Z</time></trkpt><trkpt lat="39.86862933558523" lon="9.46412474908397"><ele>864.0</ele><time>2026-04-29T08:51:07.844Z</time></trkpt><trkpt lat="39.868736534179305" lon="9.464063424434249"><ele>864.0</ele><time>2026-04-29T08:51:08.844Z</time></trkpt><trkpt lat="39.86883549456918" lon="9.46396547418018"><ele>864.0</ele><time>2026-04-29T08:51:09.844Z</time></trkpt><trkpt lat="39.868933509941506" lon="9.463874979874124"><ele>865.0</ele><time>2026-04-29T08:51:10.844Z</time></trkpt><trkpt lat="39.86903904388593" lon="9.463780072059661"><ele>866.0</ele><time>2026-04-29T08:51:11.844Z</time></trkpt><trkpt lat="39.86913626975939" lon="9.463658034611141"><ele>867.0</ele><time>2026-04-29T08:51:12.844Z</time></trkpt><trkpt lat="39.869235248425404" lon="9.463539184773389"><ele>868.0</ele><time>2026-04-29T08:51:13.844Z</time></trkpt><trkpt lat="39.8693372009058" lon="9.463409099582215"><ele>868.0</ele><time>2026-04-29T08:51:14.844Z</time></trkpt><trkpt lat="39.86944439215419" lon="9.463282152329526"><ele>868.0</ele><time>2026-04-29T08:51:15.844Z</time></trkpt><trkpt lat="39.86955060811247" lon="9.46315568103197"><ele>868.0</ele><time>2026-04-29T08:51:16.844Z</time></trkpt><trkpt lat="39.86965240445295" lon="9.463027274828644"><ele>868.0</ele><time>2026-04-29T08:51:17.844Z</time></trkpt><trkpt lat="39.86974516772363" lon="9.462902590079928"><ele>873.0</ele><time>2026-04-29T08:51:18.844Z</time></trkpt><trkpt lat="39.869823834468946" lon="9.462782092030206"><ele>878.0</ele><time>2026-04-29T08:51:19.844Z</time></trkpt><trkpt lat="39.869882172945374" lon="9.462652976338731"><ele>883.0</ele><time>2026-04-29T08:51:20.843Z</time></trkpt><trkpt lat="39.86992455364158" lon="9.462506305382364"><ele>888.0</ele><time>2026-04-29T08:51:21.843Z</time></trkpt><trkpt lat="39.869953567463575" lon="9.462344303619219"><ele>888.0</ele><time>2026-04-29T08:51:22.843Z</time></trkpt><trkpt lat="39.86997527802401" lon="9.462174542803938"><ele>888.0</ele><time>2026-04-29T08:51:23.843Z</time></trkpt><trkpt lat="39.870001012502875" lon="9.462002688785498"><ele>888.0</ele><time>2026-04-29T08:51:24.843Z</time></trkpt><trkpt lat="39.87002817284822" lon="9.461831092879626"><ele>888.0</ele><time>2026-04-29T08:51:25.843Z</time></trkpt><trkpt lat="39.870064190637684" lon="9.46167205696287"><ele>889.25</ele><time>2026-04-29T08:51:26.843Z</time></trkpt><trkpt lat="39.87010982132475" lon="9.461502200898826"><ele>890.5</ele><time>2026-04-29T08:51:27.842Z</time></trkpt><trkpt lat="39.87021739504313" lon="9.461381597990073"><ele>891.75</ele><time>2026-04-29T08:51:28.842Z</time></trkpt><trkpt lat="39.870322733013964" lon="9.461256648538773"><ele>893.0</ele><time>2026-04-29T08:51:29.842Z</time></trkpt><trkpt lat="39.87040415567103" lon="9.461103626084082"><ele>893.0</ele><time>2026-04-29T08:51:30.843Z</time></trkpt><trkpt lat="39.87044284920606" lon="9.461005960618019"><ele>893.0</ele><time>2026-04-29T08:51:31.843Z</time></trkpt><trkpt lat="39.87049535726946" lon="9.460863573163268"><ele>893.0</ele><time>2026-04-29T08:51:32.843Z</time></trkpt><trkpt lat="39.87054567569633" lon="9.46071644611063"><ele>893.0</ele><time>2026-04-29T08:51:33.843Z</time></trkpt><trkpt lat="39.87059838060396" lon="9.460562341315438"><ele>897.25</ele><time>2026-04-29T08:51:34.843Z</time></trkpt><trkpt lat="39.87065607331938" lon="9.460393391621933"><ele>901.5</ele><time>2026-04-29T08:51:35.843Z</time></trkpt><trkpt lat="39.87071249285486" lon="9.460230206095217"><ele>905.75</ele><time>2026-04-29T08:51:36.843Z</time></trkpt><trkpt lat="39.87077351371437" lon="9.460056844646777"><ele>910.0</ele><time>2026-04-29T08:51:37.843Z</time></trkpt><trkpt lat="39.87083332752757" lon="9.45988486567186"><ele>910.0</ele><time>2026-04-29T08:51:38.843Z</time></trkpt><trkpt lat="39.87088602184425" lon="9.459715829383684"><ele>910.0</ele><time>2026-04-29T08:51:39.843Z</time></trkpt><trkpt lat="39.870929311061104" lon="9.459537311147361"><ele>910.0</ele><time>2026-04-29T08:51:40.843Z</time></trkpt><trkpt lat="39.87094747144435" lon="9.459354020363667"><ele>910.0</ele><time>2026-04-29T08:51:41.843Z</time></trkpt><trkpt lat="39.87094496844455" lon="9.459175492415309"><ele>909.25</ele><time>2026-04-29T08:51:42.843Z</time></trkpt><trkpt lat="39.87095757348689" lon="9.458991623126375"><ele>908.5</ele><time>2026-04-29T08:51:43.843Z</time></trkpt><trkpt lat="39.87097585698254" lon="9.45880813735477"><ele>907.75</ele><time>2026-04-29T08:51:44.843Z</time></trkpt><trkpt lat="39.87099905947163" lon="9.45864677481321"><ele>907.0</ele><time>2026-04-29T08:51:45.843Z</time></trkpt><trkpt lat="39.87102995557344" lon="9.458514962526763"><ele>907.0</ele><time>2026-04-29T08:51:46.843Z</time></trkpt><trkpt lat="39.871074564187666" lon="9.45839807491135"><ele>907.0</ele><time>2026-04-29T08:51:47.843Z</time></trkpt><trkpt lat="39.87115531619254" lon="9.458318715579063"><ele>907.0</ele><time>2026-04-29T08:51:48.843Z</time></trkpt><trkpt lat="39.871242980385546" lon="9.458232520967737"><ele>907.0</ele><time>2026-04-29T08:51:49.843Z</time></trkpt><trkpt lat="39.87132050917073" lon="9.45814300710158"><ele>907.0</ele><time>2026-04-29T08:51:50.843Z</time></trkpt><trkpt lat="39.871377350597136" lon="9.458027361273224"><ele>908.2</ele><time>2026-04-29T08:51:51.843Z</time></trkpt><trkpt lat="39.87140789637571" lon="9.457894292455485"><ele>909.4000000000001</ele><time>2026-04-29T08:51:52.843Z</time></trkpt><trkpt lat="39.871389932834596" lon="9.45775074364188"><ele>910.5999999999999</ele><time>2026-04-29T08:51:53.843Z</time></trkpt><trkpt lat="39.87138105652165" lon="9.457616527407298"><ele>911.8</ele><time>2026-04-29T08:51:54.843Z</time></trkpt><trkpt lat="39.87137383073795" lon="9.457476088395874"><ele>913.0</ele><time>2026-04-29T08:51:55.843Z</time></trkpt><trkpt lat="39.871385116825934" lon="9.457336517684839"><ele>913.0</ele><time>2026-04-29T08:51:56.843Z</time></trkpt><trkpt lat="39.87143056362199" lon="9.457183374639808"><ele>913.0</ele><time>2026-04-29T08:51:57.843Z</time></trkpt><trkpt lat="39.87148231152092" lon="9.457032028583809"><ele>913.0</ele><time>2026-04-29T08:51:58.843Z</time></trkpt><trkpt lat="39.87154282993625" lon="9.456863401278891"><ele>913.0</ele><time>2026-04-29T08:51:59.843Z</time></trkpt><trkpt lat="39.87161490992666" lon="9.456706852252019"><ele>913.25</ele><time>2026-04-29T08:52:00.842Z</time></trkpt><trkpt lat="39.87166822238917" lon="9.456523126399524"><ele>913.5</ele><time>2026-04-29T08:52:01.842Z</time></trkpt><trkpt lat="39.87174411607404" lon="9.456364412539216"><ele>913.75</ele><time>2026-04-29T08:52:02.842Z</time></trkpt><trkpt lat="39.871810244665284" lon="9.456203033994333"><ele>914.0</ele><time>2026-04-29T08:52:03.842Z</time></trkpt><trkpt lat="39.871879049170495" lon="9.456050079248065"><ele>914.0</ele><time>2026-04-29T08:52:04.842Z</time></trkpt><trkpt lat="39.8719500219699" lon="9.455899266340031"><ele>914.0</ele><time>2026-04-29T08:52:05.842Z</time></trkpt><trkpt lat="39.87203242259539" lon="9.455753128547899"><ele>914.0</ele><time>2026-04-29T08:52:06.842Z</time></trkpt><trkpt lat="39.87211146308472" lon="9.45560740821486"><ele>914.0</ele><time>2026-04-29T08:52:07.842Z</time></trkpt><trkpt lat="39.87220325879788" lon="9.455460968444333"><ele>918.75</ele><time>2026-04-29T08:52:08.842Z</time></trkpt><trkpt lat="39.87229355181292" lon="9.455309203076276"><ele>923.5</ele><time>2026-04-29T08:52:09.842Z</time></trkpt><trkpt lat="39.872378128181346" lon="9.455160563251825"><ele>928.25</ele><time>2026-04-29T08:52:10.842Z</time></trkpt><trkpt lat="39.8724671026982" lon="9.455008018820793"><ele>933.0</ele><time>2026-04-29T08:52:11.842Z</time></trkpt><trkpt lat="39.87256033868309" lon="9.45486811551906"><ele>927.5</ele><time>2026-04-29T08:52:12.842Z</time></trkpt><trkpt lat="39.872645812309166" lon="9.454726128666929"><ele>922.0</ele><time>2026-04-29T08:52:13.842Z</time></trkpt><trkpt lat="39.872724963187665" lon="9.454586751774997"><ele>916.5</ele><time>2026-04-29T08:52:14.842Z</time></trkpt><trkpt lat="39.87277249605432" lon="9.454452718650707"><ele>911.0</ele><time>2026-04-29T08:52:15.842Z</time></trkpt><trkpt lat="39.87280961870579" lon="9.454320616571843"><ele>911.0</ele><time>2026-04-29T08:52:16.842Z</time></trkpt><trkpt lat="39.872815087550855" lon="9.454182629451687"><ele>910.9999999999999</ele><time>2026-04-29T08:52:17.842Z</time></trkpt><trkpt lat="39.872795769501785" lon="9.454059078553858"><ele>910.9999999999999</ele><time>2026-04-29T08:52:18.842Z</time></trkpt><trkpt lat="39.872753398045745" lon="9.453945919431826"><ele>911.0</ele><time>2026-04-29T08:52:19.842Z</time></trkpt><trkpt lat="39.87271012855831" lon="9.453820831982627"><ele>911.0</ele><time>2026-04-29T08:52:20.842Z</time></trkpt><trkpt lat="39.87264094402728" lon="9.453695614050172"><ele>918.0</ele><time>2026-04-29T08:52:21.842Z</time></trkpt><trkpt lat="39.872557500981394" lon="9.4535706804562"><ele>925.0</ele><time>2026-04-29T08:52:22.842Z</time></trkpt><trkpt lat="39.87248984481785" lon="9.453422879237412"><ele>932.0</ele><time>2026-04-29T08:52:23.842Z</time></trkpt><trkpt lat="39.87240652903957" lon="9.45329482675861"><ele>939.0</ele><time>2026-04-29T08:52:24.842Z</time></trkpt><trkpt lat="39.87233613187258" lon="9.453160465573765"><ele>939.0</ele><time>2026-04-29T08:52:25.842Z</time></trkpt><trkpt lat="39.8722968428811" lon="9.453030546429623"><ele>939.0</ele><time>2026-04-29T08:52:26.842Z</time></trkpt><trkpt lat="39.87225592737461" lon="9.452895619769512"><ele>939.0</ele><time>2026-04-29T08:52:27.842Z</time></trkpt><trkpt lat="39.87222778441768" lon="9.452761790080865"><ele>939.0</ele><time>2026-04-29T08:52:28.842Z</time></trkpt><trkpt lat="39.872198133721646" lon="9.452570516577497"><ele>937.25</ele><time>2026-04-29T08:52:29.842Z</time></trkpt><trkpt lat="39.87217194732171" lon="9.4523906943275"><ele>935.5</ele><time>2026-04-29T08:52:30.842Z</time></trkpt><trkpt lat="39.87214883833613" lon="9.45224068748675"><ele>933.75</ele><time>2026-04-29T08:52:31.842Z</time></trkpt><trkpt lat="39.8721103952397" lon="9.452100487116061"><ele>932.0</ele><time>2026-04-29T08:52:32.842Z</time></trkpt><trkpt lat="39.87204773304044" lon="9.451940704039425"><ele>930.3333333333334</ele><time>2026-04-29T08:52:33.842Z</time></trkpt><trkpt lat="39.87197407012823" lon="9.451779174955623"><ele>928.6666666666667</ele><time>2026-04-29T08:52:34.842Z</time></trkpt><trkpt lat="39.87188098747279" lon="9.45157547150762"><ele>927.0</ele><time>2026-04-29T08:52:35.842Z</time></trkpt><trkpt lat="39.87177603871773" lon="9.45135562664056"><ele>933.3333333333333</ele><time>2026-04-29T08:52:36.842Z</time></trkpt><trkpt lat="39.87168815454626" lon="9.451177500098979"><ele>939.6666666666666</ele><time>2026-04-29T08:52:37.842Z</time></trkpt><trkpt lat="39.871600333336275" lon="9.451004576868055"><ele>946.0</ele><time>2026-04-29T08:52:38.842Z</time></trkpt><trkpt lat="39.87152370751964" lon="9.450841454425568"><ele>946.0</ele><time>2026-04-29T08:52:39.842Z</time></trkpt><trkpt lat="39.871479413867455" lon="9.450670283615985"><ele>946.0</ele><time>2026-04-29T08:52:40.842Z</time></trkpt><trkpt lat="39.871459534457614" lon="9.450493845351243"><ele>946.0</ele><time>2026-04-29T08:52:41.842Z</time></trkpt><trkpt lat="39.87144854201102" lon="9.450319509153472"><ele>946.0</ele><time>2026-04-29T08:52:42.842Z</time></trkpt><trkpt lat="39.87144837186773" lon="9.450139342804423"><ele>945.75</ele><time>2026-04-29T08:52:43.842Z</time></trkpt><trkpt lat="39.871455014113636" lon="9.449949124780439"><ele>945.5</ele><time>2026-04-29T08:52:44.842Z</time></trkpt><trkpt lat="39.87146741115015" lon="9.449767374937482"><ele>945.25</ele><time>2026-04-29T08:52:45.842Z</time></trkpt><trkpt lat="39.87148491474799" lon="9.44960081433646"><ele>945.0</ele><time>2026-04-29T08:52:46.842Z</time></trkpt><trkpt lat="39.87152832808171" lon="9.449430088831164"><ele>945.0</ele><time>2026-04-29T08:52:47.842Z</time></trkpt><trkpt lat="39.8715946013135" lon="9.449282631499612"><ele>945.0</ele><time>2026-04-29T08:52:48.842Z</time></trkpt><trkpt lat="39.87167980552559" lon="9.449148119043063"><ele>945.0</ele><time>2026-04-29T08:52:49.842Z</time></trkpt><trkpt lat="39.87175970624645" lon="9.449011762953543"><ele>945.0</ele><time>2026-04-29T08:52:50.842Z</time></trkpt><trkpt lat="39.871836793660364" lon="9.448873182097987"><ele>945.0</ele><time>2026-04-29T08:52:51.842Z</time></trkpt><trkpt lat="39.87190147586016" lon="9.448741992690437"><ele>945.0</ele><time>2026-04-29T08:52:52.842Z</time></trkpt><trkpt lat="39.87195896639391" lon="9.448617278357126"><ele>945.0</ele><time>2026-04-29T08:52:53.842Z</time></trkpt><trkpt lat="39.8720117510327" lon="9.448502947616374"><ele>945.0</ele><time>2026-04-29T08:52:54.842Z</time></trkpt><trkpt lat="39.87205647747902" lon="9.448409919044723"><ele>945.0</ele><time>2026-04-29T08:52:55.842Z</time></trkpt><trkpt lat="39.87210017045181" lon="9.44834841799239"><ele>945.0</ele><time>2026-04-29T08:52:56.842Z</time></trkpt><trkpt lat="39.87213506842058" lon="9.448241783480189"><ele>945.0</ele><time>2026-04-29T08:52:58.842Z</time></trkpt><trkpt lat="39.87217612648825" lon="9.448154536225042"><ele>945.0</ele><time>2026-04-29T08:53:01.842Z</time></trkpt><trkpt lat="39.872210410105325" lon="9.448082175112114"><ele>945.0</ele><time>2026-04-29T08:54:10.839Z</time></trkpt><trkpt lat="39.87226606142041" lon="9.447964714260172"><ele>945.0</ele><time>2026-04-29T08:54:12.839Z</time></trkpt><trkpt lat="39.872333578173645" lon="9.447821202310777"><ele>945.3333333333334</ele><time>2026-04-29T08:54:14.839Z</time></trkpt><trkpt lat="39.87237538591818" lon="9.447731708511155"><ele>945.6666666666667</ele><time>2026-04-29T08:54:15.839Z</time></trkpt><trkpt lat="39.87242025872612" lon="9.447635654928643"><ele>946.0</ele><time>2026-04-29T08:54:16.838Z</time></trkpt><trkpt lat="39.87247207367784" lon="9.447526889683605"><ele>946.3333333333334</ele><time>2026-04-29T08:54:17.838Z</time></trkpt><trkpt lat="39.87251769542099" lon="9.447430377706132"><ele>946.6666666666667</ele><time>2026-04-29T08:54:18.838Z</time></trkpt><trkpt lat="39.872563388498115" lon="9.44733371472968"><ele>947.0</ele><time>2026-04-29T08:54:19.838Z</time></trkpt><trkpt lat="39.87260662597836" lon="9.447242246528745"><ele>947.0000000000001</ele><time>2026-04-29T08:54:20.838Z</time></trkpt><trkpt lat="39.87264928457884" lon="9.447152002912098"><ele>947.0</ele><time>2026-04-29T08:54:21.838Z</time></trkpt><trkpt lat="39.87268983124969" lon="9.447064984707367"><ele>947.0</ele><time>2026-04-29T08:54:22.838Z</time></trkpt><trkpt lat="39.872730511200814" lon="9.446977329252274"><ele>947.0</ele><time>2026-04-29T08:54:23.838Z</time></trkpt><trkpt lat="39.872769632419136" lon="9.446895770479886"><ele>947.0000000000001</ele><time>2026-04-29T08:54:24.838Z</time></trkpt><trkpt lat="39.87280363085514" lon="9.446824891534169"><ele>947.0</ele><time>2026-04-29T08:54:25.838Z</time></trkpt><trkpt lat="39.87286676321275" lon="9.446690397223124"><ele>952.3333333333334</ele><time>2026-04-29T08:54:27.838Z</time></trkpt><trkpt lat="39.87291222787438" lon="9.446593154523908"><ele>957.6666666666667</ele><time>2026-04-29T08:54:29.838Z</time></trkpt><trkpt lat="39.87297589943011" lon="9.446610709865046"><ele>963.0</ele><time>2026-04-29T08:54:32.838Z</time></trkpt><trkpt lat="39.87349089761961" lon="9.446276110205023"><ele>968.0</ele><time>2026-04-29T08:54:33.838Z</time></trkpt><trkpt lat="39.873761572824414" lon="9.446601676568108"><ele>973.0</ele><time>2026-04-29T08:54:34.838Z</time></trkpt><trkpt lat="39.87388851616821" lon="9.446692443390068"><ele>973.0</ele><time>2026-04-29T08:54:36.838Z</time></trkpt><trkpt lat="39.87398330812143" lon="9.446724915323584"><ele>973.0</ele><time>2026-04-29T08:54:38.838Z</time></trkpt><trkpt lat="39.87375717306383" lon="9.447402736986398"><ele>969.4</ele><time>2026-04-29T08:54:39.838Z</time></trkpt><trkpt lat="39.87385222014406" lon="9.447454391824989"><ele>965.8</ele><time>2026-04-29T08:54:41.838Z</time></trkpt><trkpt lat="39.87395483116551" lon="9.447433333451416"><ele>962.2</ele><time>2026-04-29T08:54:43.838Z</time></trkpt><trkpt lat="39.87401942140586" lon="9.447415700674254"><ele>958.6</ele><time>2026-04-29T08:54:44.838Z</time></trkpt><trkpt lat="39.87408097294127" lon="9.447398003315353"><ele>955.0</ele><time>2026-04-29T08:54:45.838Z</time></trkpt><trkpt lat="39.874198344249294" lon="9.447409763958662"><ele>959.4</ele><time>2026-04-29T08:54:47.838Z</time></trkpt><trkpt lat="39.874286779912104" lon="9.447542778879571"><ele>963.8</ele><time>2026-04-29T08:54:49.838Z</time></trkpt><trkpt lat="39.87433303958747" lon="9.447626130528018"><ele>968.2</ele><time>2026-04-29T08:54:50.838Z</time></trkpt><trkpt lat="39.87442127250515" lon="9.447714417011579"><ele>972.6</ele><time>2026-04-29T08:54:52.838Z</time></trkpt><trkpt lat="39.874540481118444" lon="9.44775128392699"><ele>977.0</ele><time>2026-04-29T08:54:54.838Z</time></trkpt><trkpt lat="39.87461368134996" lon="9.447895935014605"><ele>975.8333333333334</ele><time>2026-04-29T08:54:56.838Z</time></trkpt><trkpt lat="39.87465400089615" lon="9.447976965714005"><ele>974.6666666666667</ele><time>2026-04-29T08:54:57.838Z</time></trkpt><trkpt lat="39.87469457522251" lon="9.448063476814042"><ele>973.5</ele><time>2026-04-29T08:54:58.838Z</time></trkpt><trkpt lat="39.87472840371584" lon="9.44814542984158"><ele>972.3333333333333</ele><time>2026-04-29T08:54:59.838Z</time></trkpt><trkpt lat="39.87473986386671" lon="9.448228303978308"><ele>971.1666666666666</ele><time>2026-04-29T08:55:00.838Z</time></trkpt><trkpt lat="39.874704522984146" lon="9.448357123566812"><ele>970.0</ele><time>2026-04-29T08:55:02.838Z</time></trkpt><trkpt lat="39.8746007185746" lon="9.448437825352931"><ele>970.0</ele><time>2026-04-29T08:55:04.838Z</time></trkpt><trkpt lat="39.87450665734982" lon="9.448488316495508"><ele>970.0</ele><time>2026-04-29T08:55:06.838Z</time></trkpt><trkpt lat="39.87446858288991" lon="9.448554411487809"><ele>970.0</ele><time>2026-04-29T08:55:07.838Z</time></trkpt><trkpt lat="39.8744374181798" lon="9.448630161521562"><ele>970.0</ele><time>2026-04-29T08:55:08.838Z</time></trkpt><trkpt lat="39.874434093869795" lon="9.44875603376325"><ele>970.0</ele><time>2026-04-29T08:55:10.838Z</time></trkpt><trkpt lat="39.87446849684206" lon="9.44891342398833"><ele>969.9999999999999</ele><time>2026-04-29T08:55:12.838Z</time></trkpt><trkpt lat="39.87448153755955" lon="9.44900761647487"><ele>970.0</ele><time>2026-04-29T08:55:13.838Z</time></trkpt><trkpt lat="39.87448006013274" lon="9.449110800354607"><ele>970.0</ele><time>2026-04-29T08:55:14.838Z</time></trkpt><trkpt lat="39.874482183402705" lon="9.449215735980085"><ele>970.0</ele><time>2026-04-29T08:55:15.838Z</time></trkpt><trkpt lat="39.87448319669101" lon="9.44933527535875"><ele>969.9999999999999</ele><time>2026-04-29T08:55:16.838Z</time></trkpt><trkpt lat="39.8744844083354" lon="9.449447313991985"><ele>970.0</ele><time>2026-04-29T08:55:17.838Z</time></trkpt><trkpt lat="39.874500117991296" lon="9.449557408467902"><ele>968.1666666666666</ele><time>2026-04-29T08:55:18.838Z</time></trkpt><trkpt lat="39.874527285613965" lon="9.449660488323419"><ele>966.3333333333333</ele><time>2026-04-29T08:55:19.838Z</time></trkpt><trkpt lat="39.87456533576415" lon="9.449769234620733"><ele>964.5</ele><time>2026-04-29T08:55:20.838Z</time></trkpt><trkpt lat="39.8746179631464" lon="9.44986121266228"><ele>962.6666666666667</ele><time>2026-04-29T08:55:21.838Z</time></trkpt><trkpt lat="39.87468341434563" lon="9.449948651497502"><ele>960.8333333333334</ele><time>2026-04-29T08:55:22.838Z</time></trkpt><trkpt lat="39.87475198142587" lon="9.450021576579566"><ele>959.0</ele><time>2026-04-29T08:55:23.838Z</time></trkpt><trkpt lat="39.87481759958766" lon="9.450105650770652"><ele>959.0</ele><time>2026-04-29T08:55:24.838Z</time></trkpt><trkpt lat="39.874878621074714" lon="9.450184294430542"><ele>959.0000000000001</ele><time>2026-04-29T08:55:25.838Z</time></trkpt><trkpt lat="39.87498810904138" lon="9.450224772798748"><ele>959.0000000000001</ele><time>2026-04-29T08:55:27.838Z</time></trkpt><trkpt lat="39.875059746811345" lon="9.450216144922187"><ele>959.0</ele><time>2026-04-29T08:55:28.838Z</time></trkpt><trkpt lat="39.875129095646905" lon="9.450209683734395"><ele>959.0</ele><time>2026-04-29T08:55:29.838Z</time></trkpt><trkpt lat="39.8752475825712" lon="9.450199133383052"><ele>956.4000000000001</ele><time>2026-04-29T08:55:31.838Z</time></trkpt><trkpt lat="39.87535614539981" lon="9.450181272856966"><ele>953.8000000000001</ele><time>2026-04-29T08:55:33.837Z</time></trkpt><trkpt lat="39.87541622720157" lon="9.450229847745794"><ele>951.1999999999999</ele><time>2026-04-29T08:55:37.837Z</time></trkpt><trkpt lat="39.875466464012064" lon="9.450287157244853"><ele>948.5999999999999</ele><time>2026-04-29T08:55:39.837Z</time></trkpt><trkpt lat="39.87554378670456" lon="9.450390638342068"><ele>946.0</ele><time>2026-04-29T08:55:41.837Z</time></trkpt><trkpt lat="39.875623246186386" lon="9.450494841444378"><ele>946.0</ele><time>2026-04-29T08:55:42.837Z</time></trkpt><trkpt lat="39.87569177224814" lon="9.450558751755313"><ele>945.9999999999999</ele><time>2026-04-29T08:55:43.837Z</time></trkpt><trkpt lat="39.87579075295801" lon="9.450603968411503"><ele>945.9999999999999</ele><time>2026-04-29T08:55:45.836Z</time></trkpt><trkpt lat="39.875892146915724" lon="9.450640169446244"><ele>946.0</ele><time>2026-04-29T08:55:47.836Z</time></trkpt><trkpt lat="39.87602014070002" lon="9.450694756214162"><ele>946.0</ele><time>2026-04-29T08:55:49.836Z</time></trkpt><trkpt lat="39.87609670662954" lon="9.450712970966478"><ele>948.6666666666666</ele><time>2026-04-29T08:55:50.836Z</time></trkpt><trkpt lat="39.87617551625228" lon="9.450726672845779"><ele>951.3333333333333</ele><time>2026-04-29T08:55:51.836Z</time></trkpt><trkpt lat="39.87625187462555" lon="9.450772817458073"><ele>954.0</ele><time>2026-04-29T08:55:52.836Z</time></trkpt><trkpt lat="39.87632384938357" lon="9.450827959671082"><ele>956.6666666666667</ele><time>2026-04-29T08:55:53.836Z</time></trkpt><trkpt lat="39.87641020380841" lon="9.450875717956421"><ele>959.3333333333334</ele><time>2026-04-29T08:55:54.836Z</time></trkpt><trkpt lat="39.87650642671223" lon="9.450915791630965"><ele>962.0</ele><time>2026-04-29T08:55:55.836Z</time></trkpt><trkpt lat="39.876633783674" lon="9.450929464682126"><ele>962.0000000000001</ele><time>2026-04-29T08:55:57.836Z</time></trkpt><trkpt lat="39.87671008415291" lon="9.450962719408901"><ele>962.0</ele><time>2026-04-29T08:55:59.836Z</time></trkpt><trkpt lat="39.87677169245673" lon="9.451020503006156"><ele>962.0</ele><time>2026-04-29T08:56:00.836Z</time></trkpt><trkpt lat="39.87685241848174" lon="9.451105082250145"><ele>962.0</ele><time>2026-04-29T08:56:02.836Z</time></trkpt><trkpt lat="39.876904872520214" lon="9.45121414136367"><ele>962.0000000000001</ele><time>2026-04-29T08:56:04.836Z</time></trkpt><trkpt lat="39.8769884339661" lon="9.451240878172657"><ele>962.0</ele><time>2026-04-29T08:56:06.836Z</time></trkpt><trkpt lat="39.87705632339296" lon="9.451274048588063"><ele>958.6666666666667</ele><time>2026-04-29T08:56:07.836Z</time></trkpt><trkpt lat="39.877116772390934" lon="9.451306972927156"><ele>955.3333333333334</ele><time>2026-04-29T08:56:08.836Z</time></trkpt><trkpt lat="39.877193679962495" lon="9.451344886650293"><ele>952.0</ele><time>2026-04-29T08:56:10.836Z</time></trkpt><trkpt lat="39.877266737646295" lon="9.45140008770187"><ele>948.6666666666667</ele><time>2026-04-29T08:56:12.836Z</time></trkpt><trkpt lat="39.87733125604341" lon="9.451426895385657"><ele>945.3333333333334</ele><time>2026-04-29T08:56:13.836Z</time></trkpt><trkpt lat="39.87741654578946" lon="9.451464157382597"><ele>942.0</ele><time>2026-04-29T08:56:14.836Z</time></trkpt><trkpt lat="39.8774948221067" lon="9.451542810726204"><ele>942.0</ele><time>2026-04-29T08:56:15.836Z</time></trkpt><trkpt lat="39.877564598331276" lon="9.451624279381821"><ele>942.0</ele><time>2026-04-29T08:56:16.836Z</time></trkpt><trkpt lat="39.87762723031716" lon="9.45170518867731"><ele>942.0</ele><time>2026-04-29T08:56:17.836Z</time></trkpt><trkpt lat="39.877693606871844" lon="9.451775022822556"><ele>942.0</ele><time>2026-04-29T08:56:18.836Z</time></trkpt><trkpt lat="39.877758135485955" lon="9.451860782636954"><ele>942.0</ele><time>2026-04-29T08:56:19.836Z</time></trkpt><trkpt lat="39.877834430174076" lon="9.451938205873988"><ele>943.0</ele><time>2026-04-29T08:56:20.836Z</time></trkpt><trkpt lat="39.87790527478732" lon="9.452018307162115"><ele>944.0</ele><time>2026-04-29T08:56:21.836Z</time></trkpt><trkpt lat="39.87795879293113" lon="9.45209850195687"><ele>945.0</ele><time>2026-04-29T08:56:22.836Z</time></trkpt><trkpt lat="39.878025498234344" lon="9.452233611782201"><ele>946.0</ele><time>2026-04-29T08:56:24.836Z</time></trkpt><trkpt lat="39.87805932387704" lon="9.452370738845564"><ele>947.0</ele><time>2026-04-29T08:56:26.836Z</time></trkpt><trkpt lat="39.878125355170845" lon="9.452438596206775"><ele>945.0</ele><time>2026-04-29T08:56:28.836Z</time></trkpt><trkpt lat="39.87820986697832" lon="9.452411283564507"><ele>943.0</ele><time>2026-04-29T08:56:30.836Z</time></trkpt><trkpt lat="39.878303870590685" lon="9.452304448347771"><ele>941.0</ele><time>2026-04-29T08:56:32.836Z</time></trkpt><trkpt lat="39.87836465534374" lon="9.452218808951628"><ele>939.0</ele><time>2026-04-29T08:56:33.836Z</time></trkpt><trkpt lat="39.87841672712384" lon="9.452142236483459"><ele>937.0</ele><time>2026-04-29T08:56:34.836Z</time></trkpt><trkpt lat="39.878483310561094" lon="9.452107839244016"><ele>936.9999999999999</ele><time>2026-04-29T08:56:35.836Z</time></trkpt><trkpt lat="39.878564767401954" lon="9.45204587741525"><ele>937.0</ele><time>2026-04-29T08:56:37.836Z</time></trkpt><trkpt lat="39.878647119927386" lon="9.451978023414245"><ele>937.0</ele><time>2026-04-29T08:56:39.836Z</time></trkpt><trkpt lat="39.87870343496376" lon="9.45190681952388"><ele>937.0</ele><time>2026-04-29T08:56:40.836Z</time></trkpt><trkpt lat="39.878752436907625" lon="9.45180713051144"><ele>936.9999999999999</ele><time>2026-04-29T08:56:41.836Z</time></trkpt><trkpt lat="39.8787911796757" lon="9.451714126616205"><ele>937.0</ele><time>2026-04-29T08:56:42.836Z</time></trkpt><trkpt lat="39.87881536703416" lon="9.451623384488142"><ele>936.9999999999999</ele><time>2026-04-29T08:56:43.836Z</time></trkpt><trkpt lat="39.87889589159489" lon="9.45156846051376"><ele>937.0</ele><time>2026-04-29T08:56:45.836Z</time></trkpt><trkpt lat="39.87896639016703" lon="9.451608191029033"><ele>937.0</ele><time>2026-04-29T08:56:47.836Z</time></trkpt><trkpt lat="39.87902859666101" lon="9.45163530354142"><ele>937.0</ele><time>2026-04-29T08:56:48.836Z</time></trkpt><trkpt lat="39.87910332956557" lon="9.45166558950511"><ele>936.9999999999999</ele><time>2026-04-29T08:56:49.836Z</time></trkpt><trkpt lat="39.87917405300243" lon="9.451692753339525"><ele>937.0</ele><time>2026-04-29T08:56:50.836Z</time></trkpt><trkpt lat="39.87923942715264" lon="9.451727245845706"><ele>936.4999999999999</ele><time>2026-04-29T08:56:51.836Z</time></trkpt><trkpt lat="39.87930764876734" lon="9.45176510246747"><ele>936.0</ele><time>2026-04-29T08:56:52.836Z</time></trkpt><trkpt lat="39.879371882579385" lon="9.45181705826196"><ele>935.5</ele><time>2026-04-29T08:56:53.836Z</time></trkpt><trkpt lat="39.87943291923966" lon="9.451863003949379"><ele>935.0</ele><time>2026-04-29T08:56:54.835Z</time></trkpt><trkpt lat="39.87952520238069" lon="9.451897911159113"><ele>934.4999999999999</ele><time>2026-04-29T08:56:56.835Z</time></trkpt><trkpt lat="39.87961930089012" lon="9.451937126902388"><ele>934.0</ele><time>2026-04-29T08:56:58.835Z</time></trkpt><trkpt lat="39.87968205772328" lon="9.45195477284035"><ele>933.9999999999999</ele><time>2026-04-29T08:56:59.835Z</time></trkpt><trkpt lat="39.8797482617806" lon="9.451988347401818"><ele>934.0</ele><time>2026-04-29T08:57:00.835Z</time></trkpt><trkpt lat="39.87981779772787" lon="9.452021570304478"><ele>934.0</ele><time>2026-04-29T08:57:01.835Z</time></trkpt><trkpt lat="39.87988126308475" lon="9.452055760093245"><ele>934.0</ele><time>2026-04-29T08:57:02.835Z</time></trkpt><trkpt lat="39.87993822491316" lon="9.452103015974808"><ele>933.9999999999999</ele><time>2026-04-29T08:57:03.835Z</time></trkpt><trkpt lat="39.87999778869322" lon="9.452159387813834"><ele>934.0</ele><time>2026-04-29T08:57:04.835Z</time></trkpt><trkpt lat="39.880085107033494" lon="9.452221970817467"><ele>928.6666666666666</ele><time>2026-04-29T08:57:06.835Z</time></trkpt><trkpt lat="39.880147466535256" lon="9.452206118758191"><ele>923.3333333333333</ele><time>2026-04-29T08:57:08.835Z</time></trkpt><trkpt lat="39.88017749943849" lon="9.452123868693262"><ele>918.0</ele><time>2026-04-29T08:57:10.835Z</time></trkpt><trkpt lat="39.88017972055955" lon="9.451983535786672"><ele>912.6666666666667</ele><time>2026-04-29T08:57:12.835Z</time></trkpt><trkpt lat="39.88018755441059" lon="9.451895499024106"><ele>907.3333333333334</ele><time>2026-04-29T08:57:13.835Z</time></trkpt><trkpt lat="39.880199232244934" lon="9.451796499584953"><ele>902.0</ele><time>2026-04-29T08:57:14.835Z</time></trkpt><trkpt lat="39.88020705387858" lon="9.451696787117998"><ele>902.0000000000001</ele><time>2026-04-29T08:57:15.835Z</time></trkpt><trkpt lat="39.88020481636374" lon="9.451579012404052"><ele>902.0</ele><time>2026-04-29T08:57:16.835Z</time></trkpt><trkpt lat="39.88021152259652" lon="9.45148327263949"><ele>902.0</ele><time>2026-04-29T08:57:17.835Z</time></trkpt><trkpt lat="39.88021929702553" lon="9.45138782665246"><ele>902.0</ele><time>2026-04-29T08:57:18.835Z</time></trkpt><trkpt lat="39.880221094803986" lon="9.451292006128899"><ele>902.0000000000001</ele><time>2026-04-29T08:57:19.835Z</time></trkpt><trkpt lat="39.880207432713235" lon="9.451207710511"><ele>902.0</ele><time>2026-04-29T08:57:20.835Z</time></trkpt><trkpt lat="39.880191611844104" lon="9.451115175125059"><ele>904.3333333333334</ele><time>2026-04-29T08:57:21.835Z</time></trkpt><trkpt lat="39.88016754604674" lon="9.451016944431199"><ele>906.6666666666667</ele><time>2026-04-29T08:57:22.835Z</time></trkpt><trkpt lat="39.880145642350286" lon="9.450912114282188"><ele>909.0</ele><time>2026-04-29T08:57:23.835Z</time></trkpt><trkpt lat="39.88013655607464" lon="9.450804209559795"><ele>911.3333333333333</ele><time>2026-04-29T08:57:24.835Z</time></trkpt><trkpt lat="39.880128583057655" lon="9.45071316399097"><ele>913.6666666666666</ele><time>2026-04-29T08:57:25.835Z</time></trkpt><trkpt lat="39.88011394659154" lon="9.450608643917741"><ele>916.0</ele><time>2026-04-29T08:57:26.835Z</time></trkpt><trkpt lat="39.880063015356136" lon="9.450487848148944"><ele>919.3333333333333</ele><time>2026-04-29T08:57:27.835Z</time></trkpt><trkpt lat="39.880040175720794" lon="9.450404124817876"><ele>922.6666666666666</ele><time>2026-04-29T08:57:28.835Z</time></trkpt><trkpt lat="39.88003676790026" lon="9.450320217617753"><ele>926.0</ele><time>2026-04-29T08:57:29.835Z</time></trkpt><trkpt lat="39.88007480162812" lon="9.45022264760131"><ele>929.3333333333333</ele><time>2026-04-29T08:57:31.835Z</time></trkpt><trkpt lat="39.88011268696209" lon="9.450087679670588"><ele>932.6666666666666</ele><time>2026-04-29T08:57:33.835Z</time></trkpt><trkpt lat="39.880153618824714" lon="9.449966624110326"><ele>936.0</ele><time>2026-04-29T08:57:35.835Z</time></trkpt><trkpt lat="39.880223406398464" lon="9.449932078135681"><ele>936.0</ele><time>2026-04-29T08:57:37.835Z</time></trkpt><trkpt lat="39.88032151804865" lon="9.4499333954045"><ele>936.0000000000001</ele><time>2026-04-29T08:57:39.834Z</time></trkpt><trkpt lat="39.88038446822373" lon="9.449935072877276"><ele>936.0</ele><time>2026-04-29T08:57:40.834Z</time></trkpt><trkpt lat="39.88045548829853" lon="9.449947767633487"><ele>936.0</ele><time>2026-04-29T08:57:41.834Z</time></trkpt><trkpt lat="39.88052116720598" lon="9.449976756083679"><ele>936.0000000000001</ele><time>2026-04-29T08:57:42.834Z</time></trkpt><trkpt lat="39.88058466733403" lon="9.45000214862605"><ele>936.0</ele><time>2026-04-29T08:57:43.834Z</time></trkpt><trkpt lat="39.88065627386031" lon="9.450027007407515"><ele>936.0</ele><time>2026-04-29T08:57:44.834Z</time></trkpt><trkpt lat="39.88077387538674" lon="9.450084594441396"><ele>936.0</ele><time>2026-04-29T08:57:46.834Z</time></trkpt><trkpt lat="39.88086338798898" lon="9.450040461766594"><ele>935.9999999999999</ele><time>2026-04-29T08:57:49.833Z</time></trkpt><trkpt lat="39.88092440103388" lon="9.449898229548499"><ele>935.9999999999999</ele><time>2026-04-29T08:57:51.834Z</time></trkpt><trkpt lat="39.88095871602349" lon="9.449760487307005"><ele>936.0</ele><time>2026-04-29T08:57:53.834Z</time></trkpt><trkpt lat="39.880958307998476" lon="9.44967157683255"><ele>936.0</ele><time>2026-04-29T08:57:55.834Z</time></trkpt><trkpt lat="39.88094605575263" lon="9.449498214623189"><ele>941.0</ele><time>2026-04-29T08:57:57.834Z</time></trkpt><trkpt lat="39.88100475854499" lon="9.449376657391452"><ele>945.9999999999999</ele><time>2026-04-29T08:57:59.834Z</time></trkpt><trkpt lat="39.88106151651157" lon="9.449338695864034"><ele>950.9999999999999</ele><time>2026-04-29T08:58:00.834Z</time></trkpt><trkpt lat="39.88115281561009" lon="9.449305907870793"><ele>956.0</ele><time>2026-04-29T08:58:02.834Z</time></trkpt><trkpt lat="39.88124502530099" lon="9.449279425106628"><ele>961.0</ele><time>2026-04-29T08:58:04.834Z</time></trkpt><trkpt lat="39.881336093365505" lon="9.44932698762079"><ele>961.0</ele><time>2026-04-29T08:58:07.834Z</time></trkpt><trkpt lat="39.881423648720485" lon="9.44944094881749"><ele>960.9999999999999</ele><time>2026-04-29T08:58:09.834Z</time></trkpt><trkpt lat="39.88147448221737" lon="9.449495442788058"><ele>960.9999999999999</ele><time>2026-04-29T08:58:10.834Z</time></trkpt><trkpt lat="39.88158548389716" lon="9.449551589989273"><ele>961.0</ele><time>2026-04-29T08:58:12.834Z</time></trkpt><trkpt lat="39.881708306097345" lon="9.449592112218294"><ele>961.0</ele><time>2026-04-29T08:58:14.834Z</time></trkpt><trkpt lat="39.88182059052958" lon="9.44965374864542"><ele>955.3333333333333</ele><time>2026-04-29T08:58:16.834Z</time></trkpt><trkpt lat="39.88187269299057" lon="9.449716828378127"><ele>949.6666666666666</ele><time>2026-04-29T08:58:17.834Z</time></trkpt><trkpt lat="39.881926298493106" lon="9.449760878374699"><ele>944.0</ele><time>2026-04-29T08:58:18.834Z</time></trkpt><trkpt lat="39.882011255834016" lon="9.4498625931942"><ele>938.3333333333333</ele><time>2026-04-29T08:58:20.834Z</time></trkpt><trkpt lat="39.88210068878396" lon="9.44993679424778"><ele>932.6666666666666</ele><time>2026-04-29T08:58:22.834Z</time></trkpt><trkpt lat="39.8821679123482" lon="9.449930123252905"><ele>927.0</ele><time>2026-04-29T08:58:24.833Z</time></trkpt><trkpt lat="39.8822319823076" lon="9.449868702492584"><ele>927.0</ele><time>2026-04-29T08:58:26.833Z</time></trkpt><trkpt lat="39.882265697211665" lon="9.449797698621685"><ele>927.0</ele><time>2026-04-29T08:58:27.833Z</time></trkpt><trkpt lat="39.88229864408913" lon="9.449671866075475"><ele>927.0</ele><time>2026-04-29T08:58:29.833Z</time></trkpt><trkpt lat="39.88235467911891" lon="9.449599874940487"><ele>927.0</ele><time>2026-04-29T08:58:32.833Z</time></trkpt><trkpt lat="39.8824457069111" lon="9.449590248434387"><ele>927.0</ele><time>2026-04-29T08:58:34.833Z</time></trkpt><trkpt lat="39.882510229772215" lon="9.449619587708389"><ele>927.0</ele><time>2026-04-29T08:58:35.833Z</time></trkpt><trkpt lat="39.882579924726436" lon="9.449614869960785"><ele>924.0</ele><time>2026-04-29T08:58:36.833Z</time></trkpt><trkpt lat="39.88265314262304" lon="9.449612573422536"><ele>921.0</ele><time>2026-04-29T08:58:37.833Z</time></trkpt><trkpt lat="39.8827647057166" lon="9.449632472339115"><ele>918.0</ele><time>2026-04-29T08:58:39.833Z</time></trkpt><trkpt lat="39.882842787179094" lon="9.44967814090127"><ele>915.0</ele><time>2026-04-29T08:58:40.833Z</time></trkpt><trkpt lat="39.882934497658006" lon="9.449690137772679"><ele>912.0</ele><time>2026-04-29T08:58:41.833Z</time></trkpt><trkpt lat="39.88301849765093" lon="9.449720101941354"><ele>912.0</ele><time>2026-04-29T08:58:42.833Z</time></trkpt><trkpt lat="39.88311650917319" lon="9.4496965043922"><ele>912.0</ele><time>2026-04-29T08:58:44.833Z</time></trkpt><trkpt lat="39.88323851692267" lon="9.449666323207389"><ele>912.0</ele><time>2026-04-29T08:58:46.833Z</time></trkpt><trkpt lat="39.88330960642285" lon="9.449625991760737"><ele>912.0</ele><time>2026-04-29T08:58:47.833Z</time></trkpt><trkpt lat="39.88337243319091" lon="9.449561385456581"><ele>912.0</ele><time>2026-04-29T08:58:48.833Z</time></trkpt><trkpt lat="39.88341674887678" lon="9.449473158501995"><ele>916.1666666666666</ele><time>2026-04-29T08:58:49.833Z</time></trkpt><trkpt lat="39.88345710669535" lon="9.449384182158694"><ele>920.3333333333333</ele><time>2026-04-29T08:58:50.833Z</time></trkpt><trkpt lat="39.88349899513388" lon="9.449282371986353"><ele>924.5</ele><time>2026-04-29T08:58:51.833Z</time></trkpt><trkpt lat="39.883534749120855" lon="9.449194189098671"><ele>928.6666666666666</ele><time>2026-04-29T08:58:52.833Z</time></trkpt><trkpt lat="39.883574040723715" lon="9.44906891906661"><ele>932.8333333333333</ele><time>2026-04-29T08:58:54.833Z</time></trkpt><trkpt lat="39.88361981469108" lon="9.448992512826193"><ele>937.0</ele><time>2026-04-29T08:58:57.833Z</time></trkpt><trkpt lat="39.88365846518433" lon="9.448903299831123"><ele>937.0</ele><time>2026-04-29T08:59:00.833Z</time></trkpt><trkpt lat="39.883738142156204" lon="9.448890268393358"><ele>937.0</ele><time>2026-04-29T08:59:03.83Z</time></trkpt><trkpt lat="39.88379879138468" lon="9.44892805020651"><ele>937.0</ele><time>2026-04-29T08:59:05.829Z</time></trkpt><trkpt lat="39.88387937515095" lon="9.449023939469766"><ele>937.0</ele><time>2026-04-29T08:59:11.826Z</time></trkpt><trkpt lat="39.88393257292579" lon="9.449078028252552"><ele>937.0</ele><time>2026-04-29T08:59:12.825Z</time></trkpt><trkpt lat="39.88403413561336" lon="9.449180958248181"><ele>937.0</ele><time>2026-04-29T08:59:14.825Z</time></trkpt><trkpt lat="39.88409331035981" lon="9.449231629602373"><ele>937.0</ele><time>2026-04-29T08:59:15.824Z</time></trkpt><trkpt lat="39.884164603029355" lon="9.449254514832132"><ele>937.0</ele><time>2026-04-29T08:59:16.824Z</time></trkpt><trkpt lat="39.88423984335815" lon="9.449256238307935"><ele>937.0</ele><time>2026-04-29T08:59:17.824Z</time></trkpt><trkpt lat="39.8843062391079" lon="9.449255698312367"><ele>937.0</ele><time>2026-04-29T08:59:18.823Z</time></trkpt><trkpt lat="39.884372272622734" lon="9.449250011785976"><ele>937.0</ele><time>2026-04-29T08:59:19.823Z</time></trkpt><trkpt lat="39.88444793323922" lon="9.449245820456234"><ele>937.0</ele><time>2026-04-29T08:59:20.823Z</time></trkpt><trkpt lat="39.88451095915732" lon="9.449264681656741"><ele>936.1666666666666</ele><time>2026-04-29T08:59:21.823Z</time></trkpt><trkpt lat="39.88458902364334" lon="9.449286575513844"><ele>935.3333333333333</ele><time>2026-04-29T08:59:22.822Z</time></trkpt><trkpt lat="39.884671310238375" lon="9.449339941288155"><ele>934.5</ele><time>2026-04-29T08:59:23.822Z</time></trkpt><trkpt lat="39.88473778549341" lon="9.449395873979254"><ele>933.6666666666667</ele><time>2026-04-29T08:59:24.822Z</time></trkpt><trkpt lat="39.88479460497927" lon="9.449445575382446"><ele>932.8333333333334</ele><time>2026-04-29T08:59:25.822Z</time></trkpt><trkpt lat="39.88488359265592" lon="9.449481466116413"><ele>932.0</ele><time>2026-04-29T08:59:27.822Z</time></trkpt><trkpt lat="39.88497390771576" lon="9.44946705782707"><ele>932.0000000000001</ele><time>2026-04-29T08:59:29.821Z</time></trkpt><trkpt lat="39.88506540549397" lon="9.449359888881078"><ele>932.0</ele><time>2026-04-29T08:59:31.821Z</time></trkpt><trkpt lat="39.8851188815036" lon="9.44928213667233"><ele>932.0</ele><time>2026-04-29T08:59:32.821Z</time></trkpt><trkpt lat="39.88517256686035" lon="9.44920303228737"><ele>932.0</ele><time>2026-04-29T08:59:33.821Z</time></trkpt><trkpt lat="39.885211793437094" lon="9.449126485461976"><ele>932.0000000000001</ele><time>2026-04-29T08:59:34.821Z</time></trkpt><trkpt lat="39.88524694967384" lon="9.44904149173373"><ele>932.0</ele><time>2026-04-29T08:59:35.82Z</time></trkpt><trkpt lat="39.88527476812233" lon="9.448955818015842"><ele>931.1666666666667</ele><time>2026-04-29T08:59:36.82Z</time></trkpt><trkpt lat="39.88529494263017" lon="9.4488507553256"><ele>930.3333333333334</ele><time>2026-04-29T08:59:37.82Z</time></trkpt><trkpt lat="39.88531987929626" lon="9.448746737363697"><ele>929.5</ele><time>2026-04-29T08:59:38.82Z</time></trkpt><trkpt lat="39.88535032873411" lon="9.44866221495584"><ele>928.6666666666667</ele><time>2026-04-29T08:59:39.82Z</time></trkpt><trkpt lat="39.88542467521729" lon="9.448560240218157"><ele>927.8333333333334</ele><time>2026-04-29T08:59:41.82Z</time></trkpt><trkpt lat="39.88549347240832" lon="9.448542245316734"><ele>927.0</ele><time>2026-04-29T08:59:43.82Z</time></trkpt><trkpt lat="39.88555621152747" lon="9.448508972575416"><ele>926.9999999999999</ele><time>2026-04-29T08:59:46.819Z</time></trkpt><trkpt lat="39.88561028306522" lon="9.448454650391565"><ele>927.0</ele><time>2026-04-29T08:59:48.818Z</time></trkpt><trkpt lat="39.885662845454114" lon="9.448408568836042"><ele>926.9999999999999</ele><time>2026-04-29T08:59:49.818Z</time></trkpt><trkpt lat="39.88571838729116" lon="9.448366448102373"><ele>926.9999999999999</ele><time>2026-04-29T08:59:50.818Z</time></trkpt><trkpt lat="39.885757259384455" lon="9.448295413513055"><ele>927.0</ele><time>2026-04-29T08:59:51.818Z</time></trkpt><trkpt lat="39.88578767089131" lon="9.448212654921651"><ele>926.9999999999999</ele><time>2026-04-29T08:59:52.818Z</time></trkpt><trkpt lat="39.88581651227298" lon="9.448121455412153"><ele>926.9999999999999</ele><time>2026-04-29T08:59:53.818Z</time></trkpt><trkpt lat="39.88584413298838" lon="9.448022269331275"><ele>925.5</ele><time>2026-04-29T08:59:54.818Z</time></trkpt><trkpt lat="39.885857679664724" lon="9.4479165168341"><ele>924.0</ele><time>2026-04-29T08:59:55.818Z</time></trkpt><trkpt lat="39.88586657624456" lon="9.447811309183642"><ele>922.5</ele><time>2026-04-29T08:59:56.817Z</time></trkpt><trkpt lat="39.885883423511835" lon="9.447722265944568"><ele>921.0</ele><time>2026-04-29T08:59:57.817Z</time></trkpt><trkpt lat="39.88592955645778" lon="9.447585442497845"><ele>919.5</ele><time>2026-04-29T08:59:59.817Z</time></trkpt><trkpt lat="39.8859704518056" lon="9.447521922897383"><ele>918.0</ele><time>2026-04-29T09:00:00.817Z</time></trkpt><trkpt lat="39.88600493210477" lon="9.447451312354291"><ele>918.0</ele><time>2026-04-29T09:00:01.817Z</time></trkpt><trkpt lat="39.88605505085637" lon="9.447321648310677"><ele>918.0</ele><time>2026-04-29T09:00:03.817Z</time></trkpt><trkpt lat="39.88609514353107" lon="9.447224894957925"><ele>918.0</ele><time>2026-04-29T09:00:05.817Z</time></trkpt><trkpt lat="39.88618666619052" lon="9.447266722575554"><ele>918.0</ele><time>2026-04-29T09:00:08.817Z</time></trkpt><trkpt lat="39.886304535101445" lon="9.44731673353145"><ele>918.0</ele><time>2026-04-29T09:00:10.817Z</time></trkpt><trkpt lat="39.88637280199612" lon="9.447363434635118"><ele>918.0</ele><time>2026-04-29T09:00:11.817Z</time></trkpt><trkpt lat="39.88643589418989" lon="9.447398635111824"><ele>918.0</ele><time>2026-04-29T09:00:12.817Z</time></trkpt><trkpt lat="39.886506355369264" lon="9.447428588987437"><ele>918.0</ele><time>2026-04-29T09:00:13.817Z</time></trkpt><trkpt lat="39.88657543457023" lon="9.44739999897202"><ele>918.0</ele><time>2026-04-29T09:00:15.817Z</time></trkpt><trkpt lat="39.88664849137483" lon="9.447308959514448"><ele>918.0</ele><time>2026-04-29T09:00:17.817Z</time></trkpt><trkpt lat="39.88671693331336" lon="9.447278399380307"><ele>918.0</ele><time>2026-04-29T09:00:18.817Z</time></trkpt><trkpt lat="39.88679617319785" lon="9.447248548295645"><ele>916.0</ele><time>2026-04-29T09:00:19.817Z</time></trkpt><trkpt lat="39.88685710897721" lon="9.447208625238105"><ele>914.0</ele><time>2026-04-29T09:00:20.817Z</time></trkpt><trkpt lat="39.88691449245176" lon="9.447151283341473"><ele>912.0</ele><time>2026-04-29T09:00:21.817Z</time></trkpt><trkpt lat="39.88697799136145" lon="9.4471043057745"><ele>910.0</ele><time>2026-04-29T09:00:22.817Z</time></trkpt><trkpt lat="39.887042811008065" lon="9.447043274668513"><ele>908.0</ele><time>2026-04-29T09:00:23.817Z</time></trkpt><trkpt lat="39.88713523428034" lon="9.447020392888055"><ele>906.0</ele><time>2026-04-29T09:00:24.817Z</time></trkpt><trkpt lat="39.88721518720732" lon="9.447009766387595"><ele>904.0</ele><time>2026-04-29T09:00:25.817Z</time></trkpt><trkpt lat="39.8872878117373" lon="9.447002488700416"><ele>902.0</ele><time>2026-04-29T09:00:26.817Z</time></trkpt><trkpt lat="39.887355371369786" lon="9.446999443720575"><ele>900.0</ele><time>2026-04-29T09:00:27.817Z</time></trkpt><trkpt lat="39.887441945580235" lon="9.447023044688988"><ele>898.0</ele><time>2026-04-29T09:00:29.816Z</time></trkpt><trkpt lat="39.88753544936898" lon="9.447001317324734"><ele>896.0</ele><time>2026-04-29T09:00:31.816Z</time></trkpt><trkpt lat="39.887600257492686" lon="9.446947357455235"><ele>894.0</ele><time>2026-04-29T09:00:33.816Z</time></trkpt><trkpt lat="39.88765261124877" lon="9.446858208839448"><ele>893.9999999999999</ele><time>2026-04-29T09:00:38.816Z</time></trkpt><trkpt lat="39.88768842597768" lon="9.44677668487579"><ele>894.0</ele><time>2026-04-29T09:00:42.816Z</time></trkpt><trkpt lat="39.88771407537962" lon="9.446699873717256"><ele>894.0</ele><time>2026-04-29T09:00:54.816Z</time></trkpt><trkpt lat="39.8877330611836" lon="9.446610392612746"><ele>894.0</ele><time>2026-04-29T09:00:57.816Z</time></trkpt><trkpt lat="39.887741335879504" lon="9.446495185632154"><ele>894.0</ele><time>2026-04-29T09:01:00.816Z</time></trkpt><trkpt lat="39.88775628226178" lon="9.446399914029339"><ele>893.9999999999999</ele><time>2026-04-29T09:01:03.816Z</time></trkpt><trkpt lat="39.88778752465764" lon="9.446307112959753"><ele>894.0</ele><time>2026-04-29T09:01:07.816Z</time></trkpt><trkpt lat="39.88777280323111" lon="9.446167646060633"><ele>896.8333333333334</ele><time>2026-04-29T09:01:10.816Z</time></trkpt><trkpt lat="39.8877541068832" lon="9.44604767034207"><ele>899.6666666666667</ele><time>2026-04-29T09:01:13.816Z</time></trkpt><trkpt lat="39.88773618184697" lon="9.445926557467484"><ele>902.5</ele><time>2026-04-29T09:01:15.816Z</time></trkpt><trkpt lat="39.887784961026156" lon="9.445821930313697"><ele>905.3333333333334</ele><time>2026-04-29T09:01:17.816Z</time></trkpt><trkpt lat="39.88781182074708" lon="9.445746618492464"><ele>908.1666666666667</ele><time>2026-04-29T09:01:19.816Z</time></trkpt><trkpt lat="39.88784393413888" lon="9.445645515501045"><ele>911.0</ele><time>2026-04-29T09:01:21.816Z</time></trkpt><trkpt lat="39.88783987143174" lon="9.445530519062345"><ele>915.0000000000001</ele><time>2026-04-29T09:01:23.816Z</time></trkpt><trkpt lat="39.887856627619065" lon="9.445414660620951"><ele>919.0</ele><time>2026-04-29T09:01:25.816Z</time></trkpt><trkpt lat="39.88787480561626" lon="9.44530677706317"><ele>923.0</ele><time>2026-04-29T09:01:27.816Z</time></trkpt><trkpt lat="39.88790967224821" lon="9.445221762966401"><ele>927.0</ele><time>2026-04-29T09:01:31.815Z</time></trkpt><trkpt lat="39.88793312213881" lon="9.445140639515268"><ele>931.0000000000001</ele><time>2026-04-29T09:01:34.815Z</time></trkpt><trkpt lat="39.88796007020967" lon="9.445064390725983"><ele>935.0</ele><time>2026-04-29T09:01:36.815Z</time></trkpt><trkpt lat="39.88799654561222" lon="9.444984514323163"><ele>935.0000000000001</ele><time>2026-04-29T09:01:38.815Z</time></trkpt><trkpt lat="39.8880266403233" lon="9.444891942594639"><ele>935.0</ele><time>2026-04-29T09:01:40.815Z</time></trkpt><trkpt lat="39.88805867914199" lon="9.444777473547092"><ele>935.0</ele><time>2026-04-29T09:01:43.815Z</time></trkpt><trkpt lat="39.88808108925354" lon="9.44468916075674"><ele>935.0</ele><time>2026-04-29T09:01:45.815Z</time></trkpt><trkpt lat="39.88813878611079" lon="9.444621288378732"><ele>935.0000000000001</ele><time>2026-04-29T09:01:48.815Z</time></trkpt><trkpt lat="39.88820257143695" lon="9.444716722510965"><ele>935.0</ele><time>2026-04-29T09:01:51.814Z</time></trkpt><trkpt lat="39.88826050194619" lon="9.444815404241982"><ele>935.0000000000001</ele><time>2026-04-29T09:01:53.814Z</time></trkpt><trkpt lat="39.88834710828994" lon="9.444904014961518"><ele>935.0</ele><time>2026-04-29T09:01:55.814Z</time></trkpt><trkpt lat="39.88839955598191" lon="9.444970145514695"><ele>935.0</ele><time>2026-04-29T09:01:56.814Z</time></trkpt><trkpt lat="39.8884435074144" lon="9.445037671811342"><ele>935.0</ele><time>2026-04-29T09:01:57.814Z</time></trkpt><trkpt lat="39.8884890049242" lon="9.445111387614814"><ele>935.0000000000001</ele><time>2026-04-29T09:01:58.814Z</time></trkpt><trkpt lat="39.88853863444289" lon="9.445164527061063"><ele>935.0</ele><time>2026-04-29T09:01:59.814Z</time></trkpt><trkpt lat="39.88859180899555" lon="9.445224413062387"><ele>937.4</ele><time>2026-04-29T09:02:00.814Z</time></trkpt><trkpt lat="39.88869240382107" lon="9.445307427310631"><ele>939.8</ele><time>2026-04-29T09:02:02.814Z</time></trkpt><trkpt lat="39.88878888439838" lon="9.445313202561538"><ele>942.2</ele><time>2026-04-29T09:02:04.813Z</time></trkpt><trkpt lat="39.88887343932168" lon="9.44534062496732"><ele>944.6</ele><time>2026-04-29T09:02:06.813Z</time></trkpt><trkpt lat="39.88901557574313" lon="9.44537092260729"><ele>947.0</ele><time>2026-04-29T09:02:08.813Z</time></trkpt><trkpt lat="39.889091931972615" lon="9.445380206873072"><ele>947.0</ele><time>2026-04-29T09:02:09.813Z</time></trkpt><trkpt lat="39.889162724177176" lon="9.445400596525717"><ele>946.9999999999999</ele><time>2026-04-29T09:02:10.813Z</time></trkpt><trkpt lat="39.88923230326782" lon="9.44542336213403"><ele>947.0</ele><time>2026-04-29T09:02:11.813Z</time></trkpt><trkpt lat="39.889297913506994" lon="9.445450385843717"><ele>947.0</ele><time>2026-04-29T09:02:12.813Z</time></trkpt><trkpt lat="39.88935742961352" lon="9.445500690630023"><ele>946.9999999999999</ele><time>2026-04-29T09:02:13.813Z</time></trkpt><trkpt lat="39.88943639332317" lon="9.445539601478123"><ele>947.0</ele><time>2026-04-29T09:02:14.813Z</time></trkpt><trkpt lat="39.88950225118165" lon="9.445575319348"><ele>947.0</ele><time>2026-04-29T09:02:15.813Z</time></trkpt><trkpt lat="39.88957017628123" lon="9.445614240295198"><ele>941.3333333333334</ele><time>2026-04-29T09:02:16.813Z</time></trkpt><trkpt lat="39.88964930731274" lon="9.44565398155125"><ele>935.6666666666667</ele><time>2026-04-29T09:02:17.813Z</time></trkpt><trkpt lat="39.889710054737016" lon="9.445693008598782"><ele>930.0</ele><time>2026-04-29T09:02:18.813Z</time></trkpt><trkpt lat="39.88978469500723" lon="9.445720430277314"><ele>924.3333333333333</ele><time>2026-04-29T09:02:19.813Z</time></trkpt><trkpt lat="39.88985097405211" lon="9.445738874469589"><ele>918.6666666666666</ele><time>2026-04-29T09:02:20.813Z</time></trkpt><trkpt lat="39.88996059421341" lon="9.445705611458711"><ele>913.0</ele><time>2026-04-29T09:02:22.813Z</time></trkpt><trkpt lat="39.89001742716676" lon="9.445626976921464"><ele>912.3333333333333</ele><time>2026-04-29T09:02:24.813Z</time></trkpt><trkpt lat="39.890107067302445" lon="9.445493468269056"><ele>911.6666666666666</ele><time>2026-04-29T09:02:26.813Z</time></trkpt><trkpt lat="39.89016202489042" lon="9.445435563121581"><ele>911.0</ele><time>2026-04-29T09:02:27.813Z</time></trkpt><trkpt lat="39.89022102002717" lon="9.445406373788073"><ele>910.3333333333333</ele><time>2026-04-29T09:02:28.813Z</time></trkpt><trkpt lat="39.890291982316555" lon="9.445354001006596"><ele>909.6666666666666</ele><time>2026-04-29T09:02:29.813Z</time></trkpt><trkpt lat="39.890368727299624" lon="9.445281236590251"><ele>909.0</ele><time>2026-04-29T09:02:30.813Z</time></trkpt><trkpt lat="39.89045998897061" lon="9.445183090226495"><ele>909.0</ele><time>2026-04-29T09:02:32.813Z</time></trkpt><trkpt lat="39.890493223034994" lon="9.445108412665107"><ele>909.0</ele><time>2026-04-29T09:02:33.813Z</time></trkpt><trkpt lat="39.89053965607854" lon="9.445033580101104"><ele>909.0</ele><time>2026-04-29T09:02:34.813Z</time></trkpt><trkpt lat="39.890580727195" lon="9.444943686862745"><ele>909.0</ele><time>2026-04-29T09:02:35.813Z</time></trkpt><trkpt lat="39.89061058261141" lon="9.444853846710252"><ele>909.0</ele><time>2026-04-29T09:02:36.813Z</time></trkpt><trkpt lat="39.89063872573761" lon="9.444702825454684"><ele>909.0</ele><time>2026-04-29T09:02:38.813Z</time></trkpt><trkpt lat="39.890607458644105" lon="9.444569464110538"><ele>911.5</ele><time>2026-04-29T09:02:40.813Z</time></trkpt><trkpt lat="39.89057415804693" lon="9.444425322357306"><ele>914.0</ele><time>2026-04-29T09:02:42.813Z</time></trkpt><trkpt lat="39.89056735192183" lon="9.444336405402751"><ele>916.5</ele><time>2026-04-29T09:02:43.813Z</time></trkpt><trkpt lat="39.890567249580485" lon="9.444242539265291"><ele>919.0</ele><time>2026-04-29T09:02:44.813Z</time></trkpt><trkpt lat="39.890558110325145" lon="9.444158458410678"><ele>921.5</ele><time>2026-04-29T09:02:45.813Z</time></trkpt><trkpt lat="39.8905638922592" lon="9.444066544053623"><ele>924.0</ele><time>2026-04-29T09:02:47.813Z</time></trkpt><trkpt lat="39.89066005075283" lon="9.444001472321261"><ele>924.0</ele><time>2026-04-29T09:02:50.813Z</time></trkpt><trkpt lat="39.89072233604473" lon="9.44393567411552"><ele>924.0</ele><time>2026-04-29T09:02:52.813Z</time></trkpt><trkpt lat="39.89077235268162" lon="9.443885196763055"><ele>924.0</ele><time>2026-04-29T09:02:53.813Z</time></trkpt><trkpt lat="39.890835433133276" lon="9.443821569228287"><ele>924.0</ele><time>2026-04-29T09:02:54.813Z</time></trkpt><trkpt lat="39.89090370791236" lon="9.443774556717681"><ele>924.0</ele><time>2026-04-29T09:02:55.813Z</time></trkpt><trkpt lat="39.89100259078612" lon="9.443676807338907"><ele>924.0</ele><time>2026-04-29T09:02:57.813Z</time></trkpt><trkpt lat="39.891037633650704" lon="9.443600686902471"><ele>924.8333333333334</ele><time>2026-04-29T09:02:58.813Z</time></trkpt><trkpt lat="39.891092534981" lon="9.443495459961728"><ele>925.6666666666667</ele><time>2026-04-29T09:03:00.812Z</time></trkpt><trkpt lat="39.891171892757185" lon="9.443489172868615"><ele>926.5</ele><time>2026-04-29T09:03:02.812Z</time></trkpt><trkpt lat="39.89123557399182" lon="9.443525528365274"><ele>927.3333333333334</ele><time>2026-04-29T09:03:03.812Z</time></trkpt><trkpt lat="39.89131384172324" lon="9.443573472433972"><ele>928.1666666666667</ele><time>2026-04-29T09:03:04.812Z</time></trkpt><trkpt lat="39.89137579946858" lon="9.443609784209077"><ele>929.0</ele><time>2026-04-29T09:03:05.812Z</time></trkpt><trkpt lat="39.891447539178714" lon="9.44355848214132"><ele>929.0000000000001</ele><time>2026-04-29T09:03:07.812Z</time></trkpt><trkpt lat="39.891543234535455" lon="9.44345063952775"><ele>929.0</ele><time>2026-04-29T09:03:09.812Z</time></trkpt><trkpt lat="39.891594486368184" lon="9.443383166048067"><ele>929.0</ele><time>2026-04-29T09:03:10.812Z</time></trkpt><trkpt lat="39.891643137570384" lon="9.44331194852721"><ele>929.0</ele><time>2026-04-29T09:03:11.812Z</time></trkpt><trkpt lat="39.89169310834549" lon="9.443248031616434"><ele>929.0000000000001</ele><time>2026-04-29T09:03:12.812Z</time></trkpt><trkpt lat="39.89174421073095" lon="9.443188260043032"><ele>929.0</ele><time>2026-04-29T09:03:13.812Z</time></trkpt><trkpt lat="39.891802255645096" lon="9.443128589925026"><ele>930.5000000000001</ele><time>2026-04-29T09:03:14.812Z</time></trkpt><trkpt lat="39.89185583177743" lon="9.443066905466667"><ele>932.0</ele><time>2026-04-29T09:03:15.812Z</time></trkpt><trkpt lat="39.89193535737904" lon="9.442987148555021"><ele>933.5</ele><time>2026-04-29T09:03:16.812Z</time></trkpt><trkpt lat="39.891991886751356" lon="9.442911406570163"><ele>935.0</ele><time>2026-04-29T09:03:17.812Z</time></trkpt><trkpt lat="39.89209026604117" lon="9.44285762419012"><ele>936.5000000000001</ele><time>2026-04-29T09:03:18.812Z</time></trkpt><trkpt lat="39.89216187814824" lon="9.442800605212827"><ele>938.0</ele><time>2026-04-29T09:03:19.812Z</time></trkpt><trkpt lat="39.89222701875176" lon="9.442761411289544"><ele>938.0</ele><time>2026-04-29T09:03:20.812Z</time></trkpt><trkpt lat="39.89228811620567" lon="9.442709078451411"><ele>938.0</ele><time>2026-04-29T09:03:21.812Z</time></trkpt><trkpt lat="39.89233752825212" lon="9.442656653111731"><ele>938.0</ele><time>2026-04-29T09:03:22.812Z</time></trkpt><trkpt lat="39.892395620210664" lon="9.442622056068366"><ele>938.0</ele><time>2026-04-29T09:03:23.812Z</time></trkpt><trkpt lat="39.89245611521305" lon="9.442589151662405"><ele>938.0</ele><time>2026-04-29T09:03:24.812Z</time></trkpt><trkpt lat="39.89252685548331" lon="9.442572774014732"><ele>938.0</ele><time>2026-04-29T09:03:25.812Z</time></trkpt><trkpt lat="39.89259558153968" lon="9.442586417691057"><ele>938.0</ele><time>2026-04-29T09:03:26.812Z</time></trkpt><trkpt lat="39.892682728377764" lon="9.442568203277695"><ele>936.0000000000001</ele><time>2026-04-29T09:03:28.812Z</time></trkpt><trkpt lat="39.89276929309887" lon="9.442444631041441"><ele>934.0</ele><time>2026-04-29T09:03:30.812Z</time></trkpt><trkpt lat="39.89283184284593" lon="9.442373805160486"><ele>932.0</ele><time>2026-04-29T09:03:31.812Z</time></trkpt><trkpt lat="39.89289106444461" lon="9.442296973519213"><ele>930.0</ele><time>2026-04-29T09:03:32.812Z</time></trkpt><trkpt lat="39.89293008390774" lon="9.442226341602554"><ele>928.0000000000001</ele><time>2026-04-29T09:03:33.812Z</time></trkpt><trkpt lat="39.892977200599404" lon="9.442141838132741"><ele>926.0</ele><time>2026-04-29T09:03:34.812Z</time></trkpt><trkpt lat="39.89301517007445" lon="9.442046137648067"><ele>926.0000000000001</ele><time>2026-04-29T09:03:35.812Z</time></trkpt><trkpt lat="39.89303702698784" lon="9.44194204200125"><ele>926.0</ele><time>2026-04-29T09:03:36.812Z</time></trkpt><trkpt lat="39.893065493739606" lon="9.441839406769516"><ele>926.0</ele><time>2026-04-29T09:03:37.812Z</time></trkpt><trkpt lat="39.89309230634753" lon="9.441724061973199"><ele>926.0</ele><time>2026-04-29T09:03:38.812Z</time></trkpt><trkpt lat="39.893117125669775" lon="9.441630926408813"><ele>926.0000000000001</ele><time>2026-04-29T09:03:39.812Z</time></trkpt><trkpt lat="39.89315535312208" lon="9.441506734997212"><ele>926.0</ele><time>2026-04-29T09:03:41.812Z</time></trkpt><trkpt lat="39.893267610646916" lon="9.441471922141405"><ele>926.0000000000001</ele><time>2026-04-29T09:03:43.812Z</time></trkpt><trkpt lat="39.89333683737061" lon="9.441489772244417"><ele>926.0</ele><time>2026-04-29T09:03:44.812Z</time></trkpt><trkpt lat="39.89341035160382" lon="9.441507822294355"><ele>926.0</ele><time>2026-04-29T09:03:45.812Z</time></trkpt><trkpt lat="39.89349163853344" lon="9.441520065583605"><ele>926.0</ele><time>2026-04-29T09:03:46.812Z</time></trkpt><trkpt lat="39.89355392733478" lon="9.441486103536574"><ele>926.0000000000001</ele><time>2026-04-29T09:03:47.812Z</time></trkpt><trkpt lat="39.893639420208885" lon="9.441372604844473"><ele>926.0</ele><time>2026-04-29T09:03:49.812Z</time></trkpt><trkpt lat="39.89369998196959" lon="9.441309117102222"><ele>927.8333333333334</ele><time>2026-04-29T09:03:50.812Z</time></trkpt><trkpt lat="39.89376091765131" lon="9.44123890069941"><ele>929.6666666666667</ele><time>2026-04-29T09:03:51.812Z</time></trkpt><trkpt lat="39.89382027023232" lon="9.441208255360808"><ele>931.5</ele><time>2026-04-29T09:03:52.812Z</time></trkpt><trkpt lat="39.893904267572246" lon="9.44119901038217"><ele>933.3333333333333</ele><time>2026-04-29T09:03:53.812Z</time></trkpt><trkpt lat="39.89398296655504" lon="9.441207719034482"><ele>935.1666666666666</ele><time>2026-04-29T09:03:54.812Z</time></trkpt><trkpt lat="39.89407083718454" lon="9.441214441434456"><ele>937.0</ele><time>2026-04-29T09:03:55.812Z</time></trkpt><trkpt lat="39.894163060602075" lon="9.441211412679714"><ele>936.9999999999999</ele><time>2026-04-29T09:03:56.81Z</time></trkpt><trkpt lat="39.89425238692145" lon="9.441193473608747"><ele>937.0</ele><time>2026-04-29T09:03:57.81Z</time></trkpt><trkpt lat="39.89433577867166" lon="9.441171048193134"><ele>937.0</ele><time>2026-04-29T09:03:58.81Z</time></trkpt><trkpt lat="39.89440659159928" lon="9.441141408408098"><ele>937.0</ele><time>2026-04-29T09:03:59.811Z</time></trkpt><trkpt lat="39.89447901371794" lon="9.441107672860214"><ele>936.9999999999999</ele><time>2026-04-29T09:04:00.811Z</time></trkpt><trkpt lat="39.89453817481839" lon="9.441075965255717"><ele>937.0</ele><time>2026-04-29T09:04:01.811Z</time></trkpt><trkpt lat="39.894594160803045" lon="9.441035808874311"><ele>931.2</ele><time>2026-04-29T09:04:02.811Z</time></trkpt><trkpt lat="39.8946432523009" lon="9.440983679449516"><ele>925.4000000000001</ele><time>2026-04-29T09:04:03.81Z</time></trkpt><trkpt lat="39.89470910872169" lon="9.440864053992813"><ele>919.5999999999999</ele><time>2026-04-29T09:04:05.81Z</time></trkpt><trkpt lat="39.89475406850957" lon="9.440782051151574"><ele>913.8</ele><time>2026-04-29T09:04:06.811Z</time></trkpt><trkpt lat="39.894817814015894" lon="9.440630257095805"><ele>908.0</ele><time>2026-04-29T09:04:08.81Z</time></trkpt><trkpt lat="39.894863974428574" lon="9.440548702581056"><ele>908.0000000000001</ele><time>2026-04-29T09:04:09.81Z</time></trkpt><trkpt lat="39.89490549028765" lon="9.440469014161174"><ele>908.0</ele><time>2026-04-29T09:04:10.81Z</time></trkpt><trkpt lat="39.89493476938992" lon="9.440369629622946"><ele>908.0</ele><time>2026-04-29T09:04:11.81Z</time></trkpt><trkpt lat="39.894954574641034" lon="9.440277477711486"><ele>908.0</ele><time>2026-04-29T09:04:12.81Z</time></trkpt><trkpt lat="39.89497411004925" lon="9.440199337669545"><ele>908.0000000000001</ele><time>2026-04-29T09:04:13.81Z</time></trkpt><trkpt lat="39.89500435275597" lon="9.440104175305157"><ele>908.0</ele><time>2026-04-29T09:04:14.81Z</time></trkpt><trkpt lat="39.89508985949926" lon="9.44002532334853"><ele>907.4</ele><time>2026-04-29T09:04:16.809Z</time></trkpt><trkpt lat="39.89521953337054" lon="9.440030953996756"><ele>906.8</ele><time>2026-04-29T09:04:18.809Z</time></trkpt><trkpt lat="39.89535264713616" lon="9.440035153978764"><ele>906.2</ele><time>2026-04-29T09:04:20.809Z</time></trkpt><trkpt lat="39.89543867295189" lon="9.440025426296849"><ele>905.6</ele><time>2026-04-29T09:04:21.809Z</time></trkpt><trkpt lat="39.89551926226942" lon="9.4400228498403"><ele>905.0</ele><time>2026-04-29T09:04:22.809Z</time></trkpt><trkpt lat="39.89558772495792" lon="9.440010020287753"><ele>905.0000000000001</ele><time>2026-04-29T09:04:23.809Z</time></trkpt><trkpt lat="39.89569119116491" lon="9.43994664459342"><ele>905.0</ele><time>2026-04-29T09:04:25.809Z</time></trkpt><trkpt lat="39.89575165715141" lon="9.43990066388148"><ele>905.0</ele><time>2026-04-29T09:04:26.809Z</time></trkpt><trkpt lat="39.895836764667784" lon="9.439815318733169"><ele>905.0</ele><time>2026-04-29T09:04:28.809Z</time></trkpt><trkpt lat="39.89588231901936" lon="9.439749863599797"><ele>905.0000000000001</ele><time>2026-04-29T09:04:29.809Z</time></trkpt><trkpt lat="39.89592657504309" lon="9.439667258400691"><ele>905.0</ele><time>2026-04-29T09:04:30.809Z</time></trkpt><trkpt lat="39.89597591968648" lon="9.439588243185616"><ele>904.1666666666667</ele><time>2026-04-29T09:04:31.809Z</time></trkpt><trkpt lat="39.896021147201246" lon="9.43951003688431"><ele>903.3333333333334</ele><time>2026-04-29T09:04:32.809Z</time></trkpt><trkpt lat="39.89606465312631" lon="9.439435824507054"><ele>902.5</ele><time>2026-04-29T09:04:33.809Z</time></trkpt><trkpt lat="39.896107021221304" lon="9.43935138799789"><ele>901.6666666666667</ele><time>2026-04-29T09:04:34.809Z</time></trkpt><trkpt lat="39.89616657874927" lon="9.439271159513542"><ele>900.8333333333334</ele><time>2026-04-29T09:04:35.809Z</time></trkpt><trkpt lat="39.89621339586429" lon="9.439189361530323"><ele>900.0</ele><time>2026-04-29T09:04:36.809Z</time></trkpt><trkpt lat="39.89625286437586" lon="9.439099525597348"><ele>900.0</ele><time>2026-04-29T09:04:37.809Z</time></trkpt><trkpt lat="39.896278635695275" lon="9.439022906709504"><ele>900.0</ele><time>2026-04-29T09:04:38.809Z</time></trkpt><trkpt lat="39.89633093265135" lon="9.438914620580482"><ele>900.0</ele><time>2026-04-29T09:04:40.809Z</time></trkpt><trkpt lat="39.896407337836955" lon="9.438840566897936"><ele>900.0</ele><time>2026-04-29T09:04:42.809Z</time></trkpt><trkpt lat="39.896517063844826" lon="9.438716206653464"><ele>900.0</ele><time>2026-04-29T09:04:44.809Z</time></trkpt><trkpt lat="39.896571018086206" lon="9.438629581357883"><ele>903.0</ele><time>2026-04-29T09:04:45.809Z</time></trkpt><trkpt lat="39.89662434474533" lon="9.438527994147693"><ele>906.0</ele><time>2026-04-29T09:04:46.809Z</time></trkpt><trkpt lat="39.89667974450998" lon="9.438451972945805"><ele>909.0</ele><time>2026-04-29T09:04:47.809Z</time></trkpt><trkpt lat="39.89679094485871" lon="9.438372799675852"><ele>912.0</ele><time>2026-04-29T09:04:49.809Z</time></trkpt><trkpt lat="39.89691276911691" lon="9.438309657059154"><ele>915.0</ele><time>2026-04-29T09:04:51.809Z</time></trkpt><trkpt lat="39.8969811961762" lon="9.43827720946655"><ele>915.0</ele><time>2026-04-29T09:04:52.809Z</time></trkpt><trkpt lat="39.89705522980594" lon="9.438234335101637"><ele>915.0</ele><time>2026-04-29T09:04:53.809Z</time></trkpt><trkpt lat="39.897135180329585" lon="9.438182995717245"><ele>915.0</ele><time>2026-04-29T09:04:54.809Z</time></trkpt><trkpt lat="39.897196282272475" lon="9.4381311582946"><ele>915.0</ele><time>2026-04-29T09:04:55.809Z</time></trkpt><trkpt lat="39.89725564174235" lon="9.438065917974312"><ele>915.0</ele><time>2026-04-29T09:04:56.809Z</time></trkpt><trkpt lat="39.89731449982357" lon="9.438004384576955"><ele>915.0</ele><time>2026-04-29T09:04:57.809Z</time></trkpt><trkpt lat="39.897374095977305" lon="9.437958472281293"><ele>918.3333333333334</ele><time>2026-04-29T09:04:58.809Z</time></trkpt><trkpt lat="39.89747954190496" lon="9.437953174198014"><ele>921.6666666666667</ele><time>2026-04-29T09:05:00.809Z</time></trkpt><trkpt lat="39.89757361746852" lon="9.437917775104815"><ele>925.0</ele><time>2026-04-29T09:05:02.809Z</time></trkpt><trkpt lat="39.89763441345976" lon="9.437846735067701"><ele>928.3333333333334</ele><time>2026-04-29T09:05:03.809Z</time></trkpt><trkpt lat="39.8976931680864" lon="9.437777655244856"><ele>931.6666666666667</ele><time>2026-04-29T09:05:04.809Z</time></trkpt><trkpt lat="39.8977321734545" lon="9.437699767247647"><ele>935.0</ele><time>2026-04-29T09:05:05.809Z</time></trkpt><trkpt lat="39.897811742273326" lon="9.437611864059273"><ele>935.4</ele><time>2026-04-29T09:05:07.809Z</time></trkpt><trkpt lat="39.897907264892524" lon="9.437639266815859"><ele>935.8</ele><time>2026-04-29T09:05:09.809Z</time></trkpt><trkpt lat="39.89803874705401" lon="9.437670273510289"><ele>936.2</ele><time>2026-04-29T09:05:11.809Z</time></trkpt><trkpt lat="39.89810465718204" lon="9.437676658833519"><ele>936.6</ele><time>2026-04-29T09:05:12.809Z</time></trkpt><trkpt lat="39.898175611050824" lon="9.437683249580324"><ele>937.0</ele><time>2026-04-29T09:05:13.809Z</time></trkpt><trkpt lat="39.898264223510424" lon="9.437691893382624"><ele>936.9999999999999</ele><time>2026-04-29T09:05:14.809Z</time></trkpt><trkpt lat="39.89833302031775" lon="9.437718194820283"><ele>937.0</ele><time>2026-04-29T09:05:15.809Z</time></trkpt><trkpt lat="39.89842518800816" lon="9.437744296680608"><ele>937.0</ele><time>2026-04-29T09:05:16.809Z</time></trkpt><trkpt lat="39.898518001205346" lon="9.43777445875607"><ele>937.0</ele><time>2026-04-29T09:05:17.809Z</time></trkpt><trkpt lat="39.898585942886314" lon="9.437787900451195"><ele>936.9999999999999</ele><time>2026-04-29T09:05:18.809Z</time></trkpt><trkpt lat="39.89867233701594" lon="9.437864284720144"><ele>937.0</ele><time>2026-04-29T09:05:20.809Z</time></trkpt><trkpt lat="39.89869217373653" lon="9.437972830303984"><ele>938.8333333333333</ele><time>2026-04-29T09:05:22.809Z</time></trkpt><trkpt lat="39.89866181064425" lon="9.438057202040232"><ele>940.6666666666666</ele><time>2026-04-29T09:05:24.808Z</time></trkpt><trkpt lat="39.89859424097611" lon="9.438155628615835"><ele>942.5</ele><time>2026-04-29T09:05:26.808Z</time></trkpt><trkpt lat="39.898554423531095" lon="9.438272876338116"><ele>944.3333333333333</ele><time>2026-04-29T09:05:28.808Z</time></trkpt><trkpt lat="39.898524780720365" lon="9.438381621678403"><ele>946.1666666666666</ele><time>2026-04-29T09:05:29.808Z</time></trkpt><trkpt lat="39.898501248064" lon="9.438482386501153"><ele>948.0</ele><time>2026-04-29T09:05:30.808Z</time></trkpt><trkpt lat="39.89848146564513" lon="9.43860061851017"><ele>948.0</ele><time>2026-04-29T09:05:31.808Z</time></trkpt><trkpt lat="39.89845768849086" lon="9.438705634260133"><ele>948.0</ele><time>2026-04-29T09:05:32.808Z</time></trkpt><trkpt lat="39.89842898539983" lon="9.438819833926983"><ele>948.0</ele><time>2026-04-29T09:05:33.808Z</time></trkpt><trkpt lat="39.898417053778246" lon="9.43891202342155"><ele>948.0</ele><time>2026-04-29T09:05:34.808Z</time></trkpt><trkpt lat="39.898413021927084" lon="9.43902746034568"><ele>948.0</ele><time>2026-04-29T09:05:35.808Z</time></trkpt><trkpt lat="39.89839497355049" lon="9.439154678925844"><ele>948.0</ele><time>2026-04-29T09:05:36.808Z</time></trkpt><trkpt lat="39.898366615744756" lon="9.439272879345506"><ele>945.8</ele><time>2026-04-29T09:05:37.808Z</time></trkpt><trkpt lat="39.898338875673375" lon="9.439395498689128"><ele>943.5999999999999</ele><time>2026-04-29T09:05:38.808Z</time></trkpt><trkpt lat="39.898318939291116" lon="9.439517487630358"><ele>941.4000000000001</ele><time>2026-04-29T09:05:39.808Z</time></trkpt><trkpt lat="39.898298944874114" lon="9.439643668883797"><ele>939.2</ele><time>2026-04-29T09:05:40.808Z</time></trkpt><trkpt lat="39.898278577625206" lon="9.439774040208732"><ele>937.0</ele><time>2026-04-29T09:05:41.808Z</time></trkpt><trkpt lat="39.898277573577815" lon="9.439912153651974"><ele>937.0</ele><time>2026-04-29T09:05:42.808Z</time></trkpt><trkpt lat="39.89826852938887" lon="9.440044847499877"><ele>937.0</ele><time>2026-04-29T09:05:43.808Z</time></trkpt><trkpt lat="39.89824837285776" lon="9.440174015636654"><ele>937.0</ele><time>2026-04-29T09:05:44.808Z</time></trkpt><trkpt lat="39.8982354204903" lon="9.44030434452079"><ele>937.0</ele><time>2026-04-29T09:05:45.808Z</time></trkpt><trkpt lat="39.89822485991287" lon="9.440411237248835"><ele>937.0</ele><time>2026-04-29T09:05:46.808Z</time></trkpt><trkpt lat="39.89822611869428" lon="9.44050229588721"><ele>937.4000000000001</ele><time>2026-04-29T09:05:47.808Z</time></trkpt><trkpt lat="39.898244950614426" lon="9.440590376572127"><ele>937.8000000000001</ele><time>2026-04-29T09:05:48.808Z</time></trkpt><trkpt lat="39.898266867811955" lon="9.440706899822729"><ele>938.2</ele><time>2026-04-29T09:05:49.808Z</time></trkpt><trkpt lat="39.89829688721224" lon="9.4408294396831"><ele>938.6</ele><time>2026-04-29T09:05:50.808Z</time></trkpt><trkpt lat="39.89832489115875" lon="9.440971417219172"><ele>939.0</ele><time>2026-04-29T09:05:51.808Z</time></trkpt><trkpt lat="39.89834704005151" lon="9.441104316686383"><ele>939.0</ele><time>2026-04-29T09:05:52.808Z</time></trkpt><trkpt lat="39.898377515833076" lon="9.441224305210891"><ele>939.0000000000001</ele><time>2026-04-29T09:05:53.808Z</time></trkpt><trkpt lat="39.898394716187184" lon="9.441340655655722"><ele>939.0000000000001</ele><time>2026-04-29T09:05:54.808Z</time></trkpt><trkpt lat="39.89840451562113" lon="9.441426560310946"><ele>939.0</ele><time>2026-04-29T09:05:55.808Z</time></trkpt><trkpt lat="39.898367800792336" lon="9.441568161435134"><ele>939.0</ele><time>2026-04-29T09:05:57.808Z</time></trkpt><trkpt lat="39.89828670882409" lon="9.441670152550007"><ele>940.0</ele><time>2026-04-29T09:05:59.808Z</time></trkpt><trkpt lat="39.89823096721988" lon="9.441731011373054"><ele>941.0</ele><time>2026-04-29T09:06:00.808Z</time></trkpt><trkpt lat="39.898189211491434" lon="9.441828593397872"><ele>942.0</ele><time>2026-04-29T09:06:01.808Z</time></trkpt><trkpt lat="39.89813734928758" lon="9.441918460496183"><ele>943.0</ele><time>2026-04-29T09:06:02.807Z</time></trkpt><trkpt lat="39.89806009608174" lon="9.442012775265546"><ele>944.0</ele><time>2026-04-29T09:06:03.807Z</time></trkpt><trkpt lat="39.89800100787019" lon="9.442107881571456"><ele>945.0</ele><time>2026-04-29T09:06:04.807Z</time></trkpt><trkpt lat="39.89795252065207" lon="9.442210027643675"><ele>947.0</ele><time>2026-04-29T09:06:05.807Z</time></trkpt><trkpt lat="39.89788966176748" lon="9.442303581022811"><ele>949.0</ele><time>2026-04-29T09:06:06.807Z</time></trkpt><trkpt lat="39.897826526315775" lon="9.442387930690773"><ele>951.0</ele><time>2026-04-29T09:06:07.807Z</time></trkpt><trkpt lat="39.8977855224716" lon="9.442451536856085"><ele>953.0</ele><time>2026-04-29T09:06:08.807Z</time></trkpt><trkpt lat="39.897765605515616" lon="9.442560298299597"><ele>955.0</ele><time>2026-04-29T09:06:10.807Z</time></trkpt><trkpt lat="39.89772895609673" lon="9.442667361204041"><ele>957.0</ele><time>2026-04-29T09:07:55.805Z</time></trkpt><trkpt lat="39.89766511910149" lon="9.442768800201053"><ele>954.3333333333334</ele><time>2026-04-29T09:07:57.805Z</time></trkpt><trkpt lat="39.89758313883545" lon="9.442867092386162"><ele>951.6666666666667</ele><time>2026-04-29T09:07:59.805Z</time></trkpt><trkpt lat="39.897534316951834" lon="9.442919469679353"><ele>949.0</ele><time>2026-04-29T09:08:00.805Z</time></trkpt><trkpt lat="39.897477607221475" lon="9.44299792376019"><ele>946.3333333333334</ele><time>2026-04-29T09:08:01.805Z</time></trkpt><trkpt lat="39.897417565754125" lon="9.443078271817505"><ele>943.6666666666667</ele><time>2026-04-29T09:08:02.805Z</time></trkpt><trkpt lat="39.8973548699121" lon="9.44317354892297"><ele>941.0</ele><time>2026-04-29T09:08:03.805Z</time></trkpt><trkpt lat="39.89728394890267" lon="9.443274803120698"><ele>941.0</ele><time>2026-04-29T09:08:04.805Z</time></trkpt><trkpt lat="39.89721871234063" lon="9.443381802986009"><ele>940.9999999999999</ele><time>2026-04-29T09:08:05.805Z</time></trkpt><trkpt lat="39.897148383925924" lon="9.443494424066559"><ele>940.9999999999999</ele><time>2026-04-29T09:08:06.804Z</time></trkpt><trkpt lat="39.89707679391557" lon="9.443607994518501"><ele>941.0</ele><time>2026-04-29T09:08:07.804Z</time></trkpt><trkpt lat="39.89700691420695" lon="9.443725891026983"><ele>941.0</ele><time>2026-04-29T09:08:08.804Z</time></trkpt><trkpt lat="39.896938858016696" lon="9.443843902681879"><ele>937.25</ele><time>2026-04-29T09:08:09.804Z</time></trkpt><trkpt lat="39.89687669303364" lon="9.443966034770451"><ele>933.5</ele><time>2026-04-29T09:08:10.803Z</time></trkpt><trkpt lat="39.896808196561395" lon="9.444102093108784"><ele>929.75</ele><time>2026-04-29T09:08:11.803Z</time></trkpt><trkpt lat="39.89674492777861" lon="9.444241408080174"><ele>926.0</ele><time>2026-04-29T09:08:12.804Z</time></trkpt><trkpt lat="39.896677393596924" lon="9.444384930019378"><ele>926.0</ele><time>2026-04-29T09:08:13.804Z</time></trkpt><trkpt lat="39.896611204384214" lon="9.44452743296876"><ele>926.0</ele><time>2026-04-29T09:08:14.804Z</time></trkpt><trkpt lat="39.89653994624947" lon="9.444671144774835"><ele>926.0</ele><time>2026-04-29T09:08:15.804Z</time></trkpt><trkpt lat="39.896460850649675" lon="9.444815525253846"><ele>926.0</ele><time>2026-04-29T09:08:16.804Z</time></trkpt><trkpt lat="39.89637881762861" lon="9.444953954412627"><ele>930.5</ele><time>2026-04-29T09:08:17.804Z</time></trkpt><trkpt lat="39.896297207744475" lon="9.445077601958578"><ele>935.0</ele><time>2026-04-29T09:08:18.803Z</time></trkpt><trkpt lat="39.896218854983665" lon="9.445191671800565"><ele>939.5</ele><time>2026-04-29T09:08:19.804Z</time></trkpt><trkpt lat="39.89613719343953" lon="9.445308580393034"><ele>944.0</ele><time>2026-04-29T09:08:20.804Z</time></trkpt><trkpt lat="39.89606579687643" lon="9.445435259870814"><ele>946.25</ele><time>2026-04-29T09:08:21.804Z</time></trkpt><trkpt lat="39.89601425175245" lon="9.445567575261277"><ele>948.5</ele><time>2026-04-29T09:08:22.804Z</time></trkpt><trkpt lat="39.89597172781125" lon="9.445716392635228"><ele>950.75</ele><time>2026-04-29T09:08:23.804Z</time></trkpt><trkpt lat="39.89594426686183" lon="9.445872551099995"><ele>953.0</ele><time>2026-04-29T09:08:24.804Z</time></trkpt><trkpt lat="39.89593131208662" lon="9.446045923623934"><ele>945.25</ele><time>2026-04-29T09:08:25.804Z</time></trkpt><trkpt lat="39.895919949728466" lon="9.44622267701101"><ele>937.5</ele><time>2026-04-29T09:08:26.804Z</time></trkpt><trkpt lat="39.89591646296375" lon="9.446414596869845"><ele>929.75</ele><time>2026-04-29T09:08:27.804Z</time></trkpt><trkpt lat="39.89591554048806" lon="9.446607416940093"><ele>922.0</ele><time>2026-04-29T09:08:28.804Z</time></trkpt><trkpt lat="39.89591521785428" lon="9.446807935931925"><ele>922.0</ele><time>2026-04-29T09:08:29.804Z</time></trkpt><trkpt lat="39.89591584035665" lon="9.447010491533224"><ele>922.0</ele><time>2026-04-29T09:08:30.804Z</time></trkpt><trkpt lat="39.89590507775315" lon="9.447222648709271"><ele>922.0</ele><time>2026-04-29T09:08:31.804Z</time></trkpt><trkpt lat="39.89589863196055" lon="9.447426752038128"><ele>921.0</ele><time>2026-04-29T09:08:32.804Z</time></trkpt><trkpt lat="39.8958932306938" lon="9.447626159913028"><ele>920.0</ele><time>2026-04-29T09:08:33.804Z</time></trkpt><trkpt lat="39.89588634740547" lon="9.44781780194686"><ele>919.0</ele><time>2026-04-29T09:08:34.804Z</time></trkpt><trkpt lat="39.895870648823596" lon="9.447996702103351"><ele>918.0</ele><time>2026-04-29T09:08:35.804Z</time></trkpt><trkpt lat="39.895844454096164" lon="9.448169725472397"><ele>917.25</ele><time>2026-04-29T09:08:36.804Z</time></trkpt><trkpt lat="39.89579642667527" lon="9.44834455501155"><ele>916.5</ele><time>2026-04-29T09:08:37.804Z</time></trkpt><trkpt lat="39.8957323006665" lon="9.448513520939871"><ele>915.75</ele><time>2026-04-29T09:08:38.804Z</time></trkpt><trkpt lat="39.895657754706974" lon="9.4486809260971"><ele>915.0</ele><time>2026-04-29T09:08:39.804Z</time></trkpt><trkpt lat="39.89556721867028" lon="9.448845096233827"><ele>919.0</ele><time>2026-04-29T09:08:40.804Z</time></trkpt><trkpt lat="39.895471916874996" lon="9.449006949473874"><ele>923.0</ele><time>2026-04-29T09:08:41.803Z</time></trkpt><trkpt lat="39.89537088023542" lon="9.449160000706138"><ele>927.0</ele><time>2026-04-29T09:08:42.803Z</time></trkpt><trkpt lat="39.895274927065294" lon="9.449312187406742"><ele>927.0</ele><time>2026-04-29T09:08:43.803Z</time></trkpt><trkpt lat="39.89518415668138" lon="9.449477154276748"><ele>927.0</ele><time>2026-04-29T09:08:44.803Z</time></trkpt><trkpt lat="39.89510441305043" lon="9.449637561873846"><ele>927.0</ele><time>2026-04-29T09:08:45.803Z</time></trkpt><trkpt lat="39.895033548992906" lon="9.449797743593516"><ele>927.0</ele><time>2026-04-29T09:08:46.803Z</time></trkpt><trkpt lat="39.89497477037714" lon="9.449968894659264"><ele>923.0</ele><time>2026-04-29T09:08:47.803Z</time></trkpt><trkpt lat="39.89492123112364" lon="9.450158458643209"><ele>919.0</ele><time>2026-04-29T09:08:48.803Z</time></trkpt><trkpt lat="39.89488091305821" lon="9.450356068326991"><ele>915.0</ele><time>2026-04-29T09:08:49.803Z</time></trkpt><trkpt lat="39.89484640898168" lon="9.45055858278848"><ele>915.0</ele><time>2026-04-29T09:08:50.803Z</time></trkpt><trkpt lat="39.89481161349601" lon="9.45076750934426"><ele>915.0</ele><time>2026-04-29T09:08:51.803Z</time></trkpt><trkpt lat="39.89478254900446" lon="9.450966946377763"><ele>915.0</ele><time>2026-04-29T09:08:52.803Z</time></trkpt><trkpt lat="39.89475655838615" lon="9.451159849024863"><ele>913.25</ele><time>2026-04-29T09:08:53.803Z</time></trkpt><trkpt lat="39.894735687945044" lon="9.451348296254583"><ele>911.5</ele><time>2026-04-29T09:08:54.803Z</time></trkpt><trkpt lat="39.8947239170815" lon="9.451523995762917"><ele>909.75</ele><time>2026-04-29T09:08:55.803Z</time></trkpt><trkpt lat="39.89471904218501" lon="9.451667531902144"><ele>908.0</ele><time>2026-04-29T09:08:56.803Z</time></trkpt><trkpt lat="39.894711475893" lon="9.451787269867468"><ele>908.0</ele><time>2026-04-29T09:08:57.803Z</time></trkpt><trkpt lat="39.89473814953396" lon="9.451892058711817"><ele>908.0</ele><time>2026-04-29T09:08:58.803Z</time></trkpt><trkpt lat="39.89479187633612" lon="9.452006067175505"><ele>908.0</ele><time>2026-04-29T09:08:59.803Z</time></trkpt><trkpt lat="39.894856066545486" lon="9.452113829159469"><ele>908.0</ele><time>2026-04-29T09:09:00.803Z</time></trkpt><trkpt lat="39.89493550920564" lon="9.452231654604194"><ele>908.0</ele><time>2026-04-29T09:09:01.803Z</time></trkpt><trkpt lat="39.89503028047671" lon="9.452340518755273"><ele>908.25</ele><time>2026-04-29T09:09:02.803Z</time></trkpt><trkpt lat="39.895150823964265" lon="9.452411338270476"><ele>908.5</ele><time>2026-04-29T09:09:03.803Z</time></trkpt><trkpt lat="39.895268112771284" lon="9.452495608182044"><ele>908.75</ele><time>2026-04-29T09:09:04.803Z</time></trkpt><trkpt lat="39.89538471413334" lon="9.45257286500492"><ele>909.0</ele><time>2026-04-29T09:09:05.803Z</time></trkpt><trkpt lat="39.89550386217571" lon="9.452654130474848"><ele>909.0</ele><time>2026-04-29T09:09:06.803Z</time></trkpt><trkpt lat="39.89561564452276" lon="9.452739607478192"><ele>909.0</ele><time>2026-04-29T09:09:07.803Z</time></trkpt><trkpt lat="39.89570962309681" lon="9.452826536301057"><ele>909.0</ele><time>2026-04-29T09:09:08.803Z</time></trkpt><trkpt lat="39.895771433392426" lon="9.452904446391052"><ele>909.0</ele><time>2026-04-29T09:09:09.803Z</time></trkpt><trkpt lat="39.895826254658836" lon="9.453079486790942"><ele>907.6</ele><time>2026-04-29T09:09:11.803Z</time></trkpt><trkpt lat="39.89582763789269" lon="9.45320454310658"><ele>906.2</ele><time>2026-04-29T09:09:12.803Z</time></trkpt><trkpt lat="39.89578895386895" lon="9.45333245681871"><ele>904.8000000000001</ele><time>2026-04-29T09:09:13.803Z</time></trkpt><trkpt lat="39.895710441255396" lon="9.453416599610494"><ele>903.4000000000001</ele><time>2026-04-29T09:09:14.803Z</time></trkpt><trkpt lat="39.895632978445384" lon="9.453491872073965"><ele>902.0</ele><time>2026-04-29T09:09:15.803Z</time></trkpt><trkpt lat="39.89553381538383" lon="9.453548769967233"><ele>902.0</ele><time>2026-04-29T09:09:16.803Z</time></trkpt><trkpt lat="39.89542351410701" lon="9.45359516861159"><ele>902.0</ele><time>2026-04-29T09:09:17.803Z</time></trkpt><trkpt lat="39.89529844076037" lon="9.45363226887273"><ele>902.0</ele><time>2026-04-29T09:09:18.803Z</time></trkpt><trkpt lat="39.89516924926364" lon="9.453664000392791"><ele>902.0</ele><time>2026-04-29T09:09:19.803Z</time></trkpt><trkpt lat="39.89507870988957" lon="9.453708824560284"><ele>900.75</ele><time>2026-04-29T09:09:20.803Z</time></trkpt><trkpt lat="39.89494433104438" lon="9.453747768735699"><ele>899.5</ele><time>2026-04-29T09:09:21.803Z</time></trkpt><trkpt lat="39.89481870623706" lon="9.453797412372424"><ele>898.25</ele><time>2026-04-29T09:09:22.803Z</time></trkpt><trkpt lat="39.89470043702567" lon="9.453869438874019"><ele>897.0</ele><time>2026-04-29T09:09:23.803Z</time></trkpt><trkpt lat="39.89459900952888" lon="9.453960216782859"><ele>897.0</ele><time>2026-04-29T09:09:24.803Z</time></trkpt><trkpt lat="39.89452078783562" lon="9.454066901136025"><ele>897.0</ele><time>2026-04-29T09:09:25.803Z</time></trkpt><trkpt lat="39.89447298387394" lon="9.454185772854661"><ele>897.0</ele><time>2026-04-29T09:09:26.803Z</time></trkpt><trkpt lat="39.894455842904684" lon="9.454306774738704"><ele>897.0</ele><time>2026-04-29T09:09:27.803Z</time></trkpt><trkpt lat="39.894462524381254" lon="9.454431446446497"><ele>897.0</ele><time>2026-04-29T09:09:28.803Z</time></trkpt><trkpt lat="39.8945005943937" lon="9.454549008156759"><ele>896.0</ele><time>2026-04-29T09:09:29.803Z</time></trkpt><trkpt lat="39.894564358619" lon="9.454665718258886"><ele>895.0</ele><time>2026-04-29T09:09:30.803Z</time></trkpt><trkpt lat="39.894643777814" lon="9.454780131097959"><ele>894.0</ele><time>2026-04-29T09:09:31.803Z</time></trkpt><trkpt lat="39.89474014213395" lon="9.454894868774316"><ele>893.0</ele><time>2026-04-29T09:09:32.803Z</time></trkpt><trkpt lat="39.89483154098203" lon="9.45500931052997"><ele>893.0</ele><time>2026-04-29T09:09:33.803Z</time></trkpt><trkpt lat="39.89490762152408" lon="9.455130539563712"><ele>893.0</ele><time>2026-04-29T09:09:34.803Z</time></trkpt><trkpt lat="39.89496772809217" lon="9.455255576017326"><ele>893.0</ele><time>2026-04-29T09:09:35.803Z</time></trkpt><trkpt lat="39.89499195889784" lon="9.455384523430803"><ele>893.0</ele><time>2026-04-29T09:09:36.803Z</time></trkpt><trkpt lat="39.89496789669568" lon="9.455511114357972"><ele>893.0</ele><time>2026-04-29T09:09:37.803Z</time></trkpt><trkpt lat="39.894947744996465" lon="9.455639579742131"><ele>893.0</ele><time>2026-04-29T09:09:38.803Z</time></trkpt><trkpt lat="39.89486552885711" lon="9.455728519565659"><ele>893.0</ele><time>2026-04-29T09:09:39.803Z</time></trkpt><trkpt lat="39.89478526112386" lon="9.455826422442945"><ele>893.0</ele><time>2026-04-29T09:09:40.803Z</time></trkpt><trkpt lat="39.89469176723044" lon="9.455937792003906"><ele>893.0</ele><time>2026-04-29T09:09:41.803Z</time></trkpt><trkpt lat="39.89460965635446" lon="9.456059808299136"><ele>893.0</ele><time>2026-04-29T09:09:42.803Z</time></trkpt><trkpt lat="39.8944759527579" lon="9.456190246956902"><ele>893.0</ele><time>2026-04-29T09:09:43.803Z</time></trkpt><trkpt lat="39.89439316857721" lon="9.456291004176583"><ele>893.0</ele><time>2026-04-29T09:09:44.803Z</time></trkpt><trkpt lat="39.894332742754855" lon="9.456398004540265"><ele>893.0</ele><time>2026-04-29T09:09:45.803Z</time></trkpt><trkpt lat="39.89429646447259" lon="9.45652651673176"><ele>895.25</ele><time>2026-04-29T09:09:46.803Z</time></trkpt><trkpt lat="39.89426763562829" lon="9.45667200240706"><ele>897.5</ele><time>2026-04-29T09:09:47.803Z</time></trkpt><trkpt lat="39.89425992293212" lon="9.456817916717943"><ele>899.75</ele><time>2026-04-29T09:09:48.803Z</time></trkpt><trkpt lat="39.89426515253736" lon="9.456959530703621"><ele>902.0</ele><time>2026-04-29T09:09:49.803Z</time></trkpt><trkpt lat="39.89427059260664" lon="9.457116447258187"><ele>899.8</ele><time>2026-04-29T09:09:50.803Z</time></trkpt><trkpt lat="39.894297949285885" lon="9.457244738657042"><ele>897.6</ele><time>2026-04-29T09:09:51.802Z</time></trkpt><trkpt lat="39.89433844886545" lon="9.457360517915863"><ele>895.3999999999999</ele><time>2026-04-29T09:09:52.802Z</time></trkpt><trkpt lat="39.89438968670541" lon="9.457471261175343"><ele>893.1999999999999</ele><time>2026-04-29T09:09:53.802Z</time></trkpt><trkpt lat="39.89448263788362" lon="9.457529276080466"><ele>891.0</ele><time>2026-04-29T09:09:54.802Z</time></trkpt><trkpt lat="39.894576859494585" lon="9.457557864233905"><ele>891.0</ele><time>2026-04-29T09:09:55.802Z</time></trkpt><trkpt lat="39.89468011086026" lon="9.457593225453403"><ele>891.0</ele><time>2026-04-29T09:09:56.802Z</time></trkpt><trkpt lat="39.89480304073131" lon="9.45759770248438"><ele>891.0</ele><time>2026-04-29T09:09:57.802Z</time></trkpt><trkpt lat="39.89493580082796" lon="9.45758948255667"><ele>891.0</ele><time>2026-04-29T09:09:58.802Z</time></trkpt><trkpt lat="39.895072753860575" lon="9.45756321893435"><ele>893.0</ele><time>2026-04-29T09:09:59.802Z</time></trkpt><trkpt lat="39.89521062985019" lon="9.457565650041627"><ele>895.0</ele><time>2026-04-29T09:10:00.802Z</time></trkpt><trkpt lat="39.895345759634324" lon="9.457555282646448"><ele>897.0</ele><time>2026-04-29T09:10:01.802Z</time></trkpt><trkpt lat="39.89545409035841" lon="9.45756742705336"><ele>899.0</ele><time>2026-04-29T09:10:02.802Z</time></trkpt><trkpt lat="39.8955259957817" lon="9.457597969133905"><ele>899.0</ele><time>2026-04-29T09:10:03.802Z</time></trkpt><trkpt lat="39.89559918424526" lon="9.457760071025625"><ele>899.0000000000001</ele><time>2026-04-29T09:10:05.802Z</time></trkpt><trkpt lat="39.89562002154394" lon="9.457868233607092"><ele>899.0000000000001</ele><time>2026-04-29T09:10:06.802Z</time></trkpt><trkpt lat="39.895657602108614" lon="9.457970513832933"><ele>899.0</ele><time>2026-04-29T09:10:07.802Z</time></trkpt><trkpt lat="39.89571686774209" lon="9.458072187265158"><ele>899.0</ele><time>2026-04-29T09:10:08.802Z</time></trkpt><trkpt lat="39.89579148102813" lon="9.458168020398693"><ele>900.75</ele><time>2026-04-29T09:10:09.802Z</time></trkpt><trkpt lat="39.89587855622073" lon="9.458243733100154"><ele>902.5</ele><time>2026-04-29T09:10:10.802Z</time></trkpt><trkpt lat="39.89597518865103" lon="9.458325880776998"><ele>904.25</ele><time>2026-04-29T09:10:11.802Z</time></trkpt><trkpt lat="39.89607688492228" lon="9.458416148690885"><ele>906.0</ele><time>2026-04-29T09:10:12.8Z</time></trkpt><trkpt lat="39.8961636398186" lon="9.458518080463188"><ele>906.0</ele><time>2026-04-29T09:10:13.801Z</time></trkpt><trkpt lat="39.89622697631956" lon="9.458627165722303"><ele>906.0</ele><time>2026-04-29T09:10:14.801Z</time></trkpt><trkpt lat="39.89625247606665" lon="9.458723311948779"><ele>906.0</ele><time>2026-04-29T09:10:15.801Z</time></trkpt><trkpt lat="39.89624806125716" lon="9.45882444880703"><ele>906.0</ele><time>2026-04-29T09:10:16.801Z</time></trkpt><trkpt lat="39.89620876479759" lon="9.458925277852776"><ele>906.0</ele><time>2026-04-29T09:10:17.8Z</time></trkpt><trkpt lat="39.89614624744727" lon="9.459026937256027"><ele>906.0</ele><time>2026-04-29T09:10:18.801Z</time></trkpt><trkpt lat="39.896079097710775" lon="9.459135265375869"><ele>904.5</ele><time>2026-04-29T09:10:19.8Z</time></trkpt><trkpt lat="39.89600021931558" lon="9.459240736286029"><ele>903.0</ele><time>2026-04-29T09:10:20.8Z</time></trkpt><trkpt lat="39.895921208999624" lon="9.459350588472988"><ele>901.5</ele><time>2026-04-29T09:10:21.801Z</time></trkpt><trkpt lat="39.89583618444274" lon="9.459466689426021"><ele>900.0</ele><time>2026-04-29T09:10:22.8Z</time></trkpt><trkpt lat="39.895756750467356" lon="9.459587580749629"><ele>898.25</ele><time>2026-04-29T09:10:23.8Z</time></trkpt><trkpt lat="39.89569825299007" lon="9.45972935614095"><ele>896.5</ele><time>2026-04-29T09:10:24.8Z</time></trkpt><trkpt lat="39.895646502683086" lon="9.459891600931531"><ele>894.75</ele><time>2026-04-29T09:10:25.8Z</time></trkpt><trkpt lat="39.89560188985371" lon="9.460063739803987"><ele>893.0</ele><time>2026-04-29T09:10:26.8Z</time></trkpt><trkpt lat="39.8955642041378" lon="9.460229064372253"><ele>893.0</ele><time>2026-04-29T09:10:27.8Z</time></trkpt><trkpt lat="39.89551644804165" lon="9.460406432496681"><ele>893.0</ele><time>2026-04-29T09:10:28.8Z</time></trkpt><trkpt lat="39.895472803094314" lon="9.46058934092197"><ele>893.0</ele><time>2026-04-29T09:10:29.8Z</time></trkpt><trkpt lat="39.89542041105452" lon="9.460764634493032"><ele>893.0</ele><time>2026-04-29T09:10:30.8Z</time></trkpt><trkpt lat="39.89536353346928" lon="9.460931421380241"><ele>892.8</ele><time>2026-04-29T09:10:31.8Z</time></trkpt><trkpt lat="39.895305494927214" lon="9.461083868303827"><ele>892.5999999999999</ele><time>2026-04-29T09:10:32.8Z</time></trkpt><trkpt lat="39.89525304436361" lon="9.46122839473359"><ele>892.4000000000001</ele><time>2026-04-29T09:10:33.8Z</time></trkpt><trkpt lat="39.89522571506493" lon="9.461362378530026"><ele>892.2</ele><time>2026-04-29T09:10:34.8Z</time></trkpt><trkpt lat="39.89523220081903" lon="9.461460254969555"><ele>892.0</ele><time>2026-04-29T09:10:35.8Z</time></trkpt><trkpt lat="39.8952647461436" lon="9.461551738761793"><ele>888.75</ele><time>2026-04-29T09:10:36.8Z</time></trkpt><trkpt lat="39.8953288752924" lon="9.461651181276448"><ele>885.5</ele><time>2026-04-29T09:10:37.8Z</time></trkpt><trkpt lat="39.895416261697186" lon="9.461743933952281"><ele>882.25</ele><time>2026-04-29T09:10:38.8Z</time></trkpt><trkpt lat="39.89552152252782" lon="9.461846384657077"><ele>879.0</ele><time>2026-04-29T09:10:39.8Z</time></trkpt><trkpt lat="39.89561675433067" lon="9.461964112011168"><ele>879.0</ele><time>2026-04-29T09:10:40.8Z</time></trkpt><trkpt lat="39.89572203388945" lon="9.4620615745766"><ele>879.0</ele><time>2026-04-29T09:10:41.8Z</time></trkpt><trkpt lat="39.89582488101075" lon="9.462147017716257"><ele>879.0</ele><time>2026-04-29T09:10:42.8Z</time></trkpt><trkpt lat="39.895931466252506" lon="9.462227516554808"><ele>879.0</ele><time>2026-04-29T09:10:43.8Z</time></trkpt><trkpt lat="39.89604599954679" lon="9.46228859726102"><ele>876.5</ele><time>2026-04-29T09:10:44.8Z</time></trkpt><trkpt lat="39.89616087684807" lon="9.462321152025309"><ele>874.0</ele><time>2026-04-29T09:10:45.8Z</time></trkpt><trkpt lat="39.89627684986725" lon="9.46232230765131"><ele>871.5</ele><time>2026-04-29T09:10:46.8Z</time></trkpt><trkpt lat="39.896378514931165" lon="9.462261329407546"><ele>869.0</ele><time>2026-04-29T09:10:47.8Z</time></trkpt><trkpt lat="39.89648196471775" lon="9.462204095271717"><ele>869.0</ele><time>2026-04-29T09:10:48.8Z</time></trkpt><trkpt lat="39.89657874808049" lon="9.462109630205335"><ele>869.0</ele><time>2026-04-29T09:10:49.8Z</time></trkpt><trkpt lat="39.89667741841383" lon="9.461994288045764"><ele>869.0</ele><time>2026-04-29T09:10:50.8Z</time></trkpt><trkpt lat="39.89678733159937" lon="9.461878352574928"><ele>869.0</ele><time>2026-04-29T09:10:51.8Z</time></trkpt><trkpt lat="39.89691536973737" lon="9.461782213672821"><ele>867.25</ele><time>2026-04-29T09:10:52.8Z</time></trkpt><trkpt lat="39.89703845903131" lon="9.461662956228277"><ele>865.5</ele><time>2026-04-29T09:10:53.8Z</time></trkpt><trkpt lat="39.89715400409901" lon="9.461548982932824"><ele>863.75</ele><time>2026-04-29T09:10:54.8Z</time></trkpt><trkpt lat="39.897275467133696" lon="9.461446022778428"><ele>862.0</ele><time>2026-04-29T09:10:55.8Z</time></trkpt><trkpt lat="39.897410541420314" lon="9.461369213506773"><ele>862.0</ele><time>2026-04-29T09:10:56.8Z</time></trkpt><trkpt lat="39.89755979901064" lon="9.461306582159404"><ele>862.0</ele><time>2026-04-29T09:10:57.8Z</time></trkpt><trkpt lat="39.89771200807067" lon="9.461251280629304"><ele>862.0</ele><time>2026-04-29T09:10:58.8Z</time></trkpt><trkpt lat="39.89787079773496" lon="9.461205733454465"><ele>862.6666666666666</ele><time>2026-04-29T09:10:59.8Z</time></trkpt><trkpt lat="39.89802952856347" lon="9.461162425883883"><ele>863.3333333333333</ele><time>2026-04-29T09:11:00.8Z</time></trkpt><trkpt lat="39.89819217693339" lon="9.461118155510789"><ele>864.0</ele><time>2026-04-29T09:11:01.8Z</time></trkpt><trkpt lat="39.89834874642391" lon="9.461058014762392"><ele>862.3333333333333</ele><time>2026-04-29T09:11:02.8Z</time></trkpt><trkpt lat="39.89851038939479" lon="9.461020937371714"><ele>860.6666666666666</ele><time>2026-04-29T09:11:03.8Z</time></trkpt><trkpt lat="39.89867545025088" lon="9.460977735252214"><ele>859.0</ele><time>2026-04-29T09:11:04.8Z</time></trkpt><trkpt lat="39.89883943095836" lon="9.460937568320592"><ele>859.0</ele><time>2026-04-29T09:11:05.8Z</time></trkpt><trkpt lat="39.899004028286456" lon="9.460902161451267"><ele>859.0</ele><time>2026-04-29T09:11:06.8Z</time></trkpt><trkpt lat="39.899171053417064" lon="9.460872006569554"><ele>859.0</ele><time>2026-04-29T09:11:07.8Z</time></trkpt><trkpt lat="39.899337831667665" lon="9.460843069593633"><ele>857.0</ele><time>2026-04-29T09:11:08.8Z</time></trkpt><trkpt lat="39.8995084071763" lon="9.4608118344122"><ele>855.0</ele><time>2026-04-29T09:11:09.8Z</time></trkpt><trkpt lat="39.89968570294689" lon="9.460802195184069"><ele>853.0</ele><time>2026-04-29T09:11:10.8Z</time></trkpt><trkpt lat="39.89986488401481" lon="9.460760993157171"><ele>853.0</ele><time>2026-04-29T09:11:11.8Z</time></trkpt><trkpt lat="39.90004730178079" lon="9.4607336287925"><ele>853.0</ele><time>2026-04-29T09:11:12.8Z</time></trkpt><trkpt lat="39.900225315416314" lon="9.460705919548698"><ele>853.0</ele><time>2026-04-29T09:11:13.8Z</time></trkpt><trkpt lat="39.9004119972488" lon="9.460678886714339"><ele>852.3333333333333</ele><time>2026-04-29T09:11:14.8Z</time></trkpt><trkpt lat="39.9005955935329" lon="9.460650729947618"><ele>851.6666666666667</ele><time>2026-04-29T09:11:15.8Z</time></trkpt><trkpt lat="39.900777790404256" lon="9.460623865975554"><ele>851.0</ele><time>2026-04-29T09:11:16.8Z</time></trkpt><trkpt lat="39.90095440286476" lon="9.460599278133694"><ele>849.6666666666667</ele><time>2026-04-29T09:11:17.799Z</time></trkpt><trkpt lat="39.901123978790345" lon="9.460593829166859"><ele>848.3333333333333</ele><time>2026-04-29T09:11:18.799Z</time></trkpt><trkpt lat="39.901290842805636" lon="9.460611663730267"><ele>847.0</ele><time>2026-04-29T09:11:19.799Z</time></trkpt><trkpt lat="39.901451815075276" lon="9.460653460688164"><ele>847.0</ele><time>2026-04-29T09:11:20.799Z</time></trkpt><trkpt lat="39.9016276155727" lon="9.46071339758907"><ele>847.0</ele><time>2026-04-29T09:11:21.799Z</time></trkpt><trkpt lat="39.90179983666818" lon="9.460792737273263"><ele>847.0</ele><time>2026-04-29T09:11:22.799Z</time></trkpt><trkpt lat="39.90197420410233" lon="9.460870672217734"><ele>846.6666666666666</ele><time>2026-04-29T09:11:23.799Z</time></trkpt><trkpt lat="39.902154225736105" lon="9.460955766528276"><ele>846.3333333333333</ele><time>2026-04-29T09:11:24.799Z</time></trkpt><trkpt lat="39.902336664915104" lon="9.46103773172282"><ele>846.0</ele><time>2026-04-29T09:11:25.799Z</time></trkpt><trkpt lat="39.90251635797531" lon="9.461120205893913"><ele>846.0</ele><time>2026-04-29T09:11:26.799Z</time></trkpt><trkpt lat="39.90269370397161" lon="9.461196300872864"><ele>846.0</ele><time>2026-04-29T09:11:27.799Z</time></trkpt><trkpt lat="39.90286018564806" lon="9.461269850630433"><ele>846.0</ele><time>2026-04-29T09:11:28.799Z</time></trkpt><trkpt lat="39.90302118808794" lon="9.461338989995761"><ele>844.3333333333333</ele><time>2026-04-29T09:11:29.799Z</time></trkpt><trkpt lat="39.9031709021978" lon="9.461391014222816"><ele>842.6666666666666</ele><time>2026-04-29T09:11:30.799Z</time></trkpt><trkpt lat="39.903327759133376" lon="9.46143409969547"><ele>841.0</ele><time>2026-04-29T09:11:31.799Z</time></trkpt><trkpt lat="39.90348974476405" lon="9.46144163084009"><ele>840.6666666666666</ele><time>2026-04-29T09:11:32.799Z</time></trkpt><trkpt lat="39.90366135158381" lon="9.461438198818728"><ele>840.3333333333333</ele><time>2026-04-29T09:11:33.799Z</time></trkpt><trkpt lat="39.903840240041944" lon="9.461431929946654"><ele>840.0</ele><time>2026-04-29T09:11:34.799Z</time></trkpt><trkpt lat="39.904013346222534" lon="9.46142635125787"><ele>840.0</ele><time>2026-04-29T09:11:35.799Z</time></trkpt><trkpt lat="39.90418141957633" lon="9.461422106676563"><ele>840.0</ele><time>2026-04-29T09:11:36.799Z</time></trkpt><trkpt lat="39.90435298302338" lon="9.46141782004058"><ele>840.0</ele><time>2026-04-29T09:11:37.799Z</time></trkpt><trkpt lat="39.90451774392833" lon="9.461413507080382"><ele>839.3333333333333</ele><time>2026-04-29T09:11:38.799Z</time></trkpt><trkpt lat="39.90467733256387" lon="9.461409388198724"><ele>838.6666666666666</ele><time>2026-04-29T09:11:39.799Z</time></trkpt><trkpt lat="39.904832694721314" lon="9.461405380028552"><ele>838.0</ele><time>2026-04-29T09:11:40.799Z</time></trkpt><trkpt lat="39.904992313337004" lon="9.461402735107427"><ele>837.5</ele><time>2026-04-29T09:11:41.799Z</time></trkpt><trkpt lat="39.90514055482995" lon="9.461398257290366"><ele>837.0</ele><time>2026-04-29T09:11:42.799Z</time></trkpt><trkpt lat="39.9052868464083" lon="9.461393366448002"><ele>836.5</ele><time>2026-04-29T09:11:43.799Z</time></trkpt><trkpt lat="39.90542631107213" lon="9.461390454123661"><ele>836.0</ele><time>2026-04-29T09:11:44.799Z</time></trkpt><trkpt lat="39.905557629697455" lon="9.461388104212569"><ele>836.0</ele><time>2026-04-29T09:11:45.799Z</time></trkpt><trkpt lat="39.90568821520271" lon="9.461383419830863"><ele>836.0</ele><time>2026-04-29T09:11:46.799Z</time></trkpt><trkpt lat="39.90581373003444" lon="9.461374899231433"><ele>836.0</ele><time>2026-04-29T09:11:47.799Z</time></trkpt><trkpt lat="39.90594061823202" lon="9.461368872268475"><ele>836.0</ele><time>2026-04-29T09:11:48.799Z</time></trkpt><trkpt lat="39.90606059136868" lon="9.461369766684571"><ele>836.1999999999999</ele><time>2026-04-29T09:11:49.799Z</time></trkpt><trkpt lat="39.90617721108636" lon="9.461368438929409"><ele>836.4</ele><time>2026-04-29T09:11:50.799Z</time></trkpt><trkpt lat="39.90628130740774" lon="9.46136785106809"><ele>836.6</ele><time>2026-04-29T09:11:51.799Z</time></trkpt><trkpt lat="39.90638245256013" lon="9.461364086137548"><ele>836.8</ele><time>2026-04-29T09:11:52.799Z</time></trkpt><trkpt lat="39.90647369443135" lon="9.461363688295513"><ele>837.0</ele><time>2026-04-29T09:11:53.799Z</time></trkpt><trkpt lat="39.90656865708431" lon="9.461366745568666"><ele>837.0</ele><time>2026-04-29T09:11:54.799Z</time></trkpt><trkpt lat="39.906656697370416" lon="9.461362171145893"><ele>837.0</ele><time>2026-04-29T09:11:55.799Z</time></trkpt><trkpt lat="39.90674004486407" lon="9.461360382171803"><ele>837.0</ele><time>2026-04-29T09:11:56.799Z</time></trkpt><trkpt lat="39.90682500972966" lon="9.461356631225348"><ele>837.0</ele><time>2026-04-29T09:11:57.799Z</time></trkpt><trkpt lat="39.90690407727436" lon="9.461352664382629"><ele>837.0</ele><time>2026-04-29T09:11:58.799Z</time></trkpt><trkpt lat="39.906977966427725" lon="9.461350815617193"><ele>837.0</ele><time>2026-04-29T09:11:59.799Z</time></trkpt><trkpt lat="39.907072589913646" lon="9.461353565207967"><ele>836.8333333333334</ele><time>2026-04-29T09:12:01.799Z</time></trkpt><trkpt lat="39.90713595937782" lon="9.461342833475024"><ele>836.6666666666667</ele><time>2026-04-29T09:12:03.799Z</time></trkpt><trkpt lat="39.90723312118051" lon="9.46135932416325"><ele>836.5</ele><time>2026-04-29T09:12:05.799Z</time></trkpt><trkpt lat="39.90729779241153" lon="9.461357612329895"><ele>836.3333333333334</ele><time>2026-04-29T09:12:06.799Z</time></trkpt><trkpt lat="39.90737427746979" lon="9.461355723869561"><ele>836.1666666666667</ele><time>2026-04-29T09:12:07.799Z</time></trkpt><trkpt lat="39.907457297408" lon="9.461353703614085"><ele>836.0</ele><time>2026-04-29T09:12:08.799Z</time></trkpt><trkpt lat="39.90754644853596" lon="9.461351534150204"><ele>835.5999999999999</ele><time>2026-04-29T09:12:09.799Z</time></trkpt><trkpt lat="39.90764484497065" lon="9.461349139707991"><ele>835.2</ele><time>2026-04-29T09:12:10.799Z</time></trkpt><trkpt lat="39.90775220239014" lon="9.461346608958022"><ele>834.8</ele><time>2026-04-29T09:12:11.799Z</time></trkpt><trkpt lat="39.90786518640852" lon="9.461344026394672"><ele>834.4000000000001</ele><time>2026-04-29T09:12:12.799Z</time></trkpt><trkpt lat="39.90798181687917" lon="9.46134135893172"><ele>834.0</ele><time>2026-04-29T09:12:13.799Z</time></trkpt><trkpt lat="39.90810620670527" lon="9.461338513999548"><ele>834.0</ele><time>2026-04-29T09:12:14.799Z</time></trkpt><trkpt lat="39.90823389075305" lon="9.461335593727874"><ele>834.0</ele><time>2026-04-29T09:12:15.799Z</time></trkpt><trkpt lat="39.90836375347548" lon="9.461332510693017"><ele>834.0</ele><time>2026-04-29T09:12:16.799Z</time></trkpt><trkpt lat="39.90849587524407" lon="9.461328840554511"><ele>834.0</ele><time>2026-04-29T09:12:17.799Z</time></trkpt><trkpt lat="39.90863143828681" lon="9.461307282234971"><ele>833.5</ele><time>2026-04-29T09:12:18.798Z</time></trkpt><trkpt lat="39.90877017898644" lon="9.461310741198135"><ele>833.0</ele><time>2026-04-29T09:12:19.797Z</time></trkpt><trkpt lat="39.90891308798737" lon="9.461308408217228"><ele>832.5</ele><time>2026-04-29T09:12:20.797Z</time></trkpt><trkpt lat="39.90906373297648" lon="9.461300966634004"><ele>832.0</ele><time>2026-04-29T09:12:21.797Z</time></trkpt><trkpt lat="39.90920616967872" lon="9.461290488972494"><ele>831.75</ele><time>2026-04-29T09:12:22.797Z</time></trkpt><trkpt lat="39.90935435509495" lon="9.461307404956418"><ele>831.5</ele><time>2026-04-29T09:12:23.797Z</time></trkpt><trkpt lat="39.9095009472279" lon="9.461283809105188"><ele>831.25</ele><time>2026-04-29T09:12:24.798Z</time></trkpt><trkpt lat="39.90964790649978" lon="9.461280621731522"><ele>831.0</ele><time>2026-04-29T09:12:25.797Z</time></trkpt><trkpt lat="39.90979364356685" lon="9.46127990208323"><ele>831.75</ele><time>2026-04-29T09:12:26.797Z</time></trkpt><trkpt lat="39.90993943052364" lon="9.461278050246827"><ele>832.5</ele><time>2026-04-29T09:12:27.798Z</time></trkpt><trkpt lat="39.910084483337485" lon="9.461274571902386"><ele>833.25</ele><time>2026-04-29T09:12:28.797Z</time></trkpt><trkpt lat="39.910227708564705" lon="9.461267889796721"><ele>834.0</ele><time>2026-04-29T09:12:29.797Z</time></trkpt><trkpt lat="39.91036943933817" lon="9.461260660446793"><ele>835.0</ele><time>2026-04-29T09:12:30.797Z</time></trkpt><trkpt lat="39.91051016047105" lon="9.461277370459014"><ele>836.0</ele><time>2026-04-29T09:12:31.797Z</time></trkpt><trkpt lat="39.91065088542464" lon="9.461272987372016"><ele>837.0</ele><time>2026-04-29T09:12:32.797Z</time></trkpt><trkpt lat="39.91079382891369" lon="9.461268941816396"><ele>838.0</ele><time>2026-04-29T09:12:33.797Z</time></trkpt><trkpt lat="39.910942056025924" lon="9.461265529770118"><ele>839.6666666666666</ele><time>2026-04-29T09:12:34.797Z</time></trkpt><trkpt lat="39.91109808510903" lon="9.46124928999922"><ele>841.3333333333333</ele><time>2026-04-29T09:12:35.797Z</time></trkpt><trkpt lat="39.91125450624503" lon="9.461245248485485"><ele>843.0</ele><time>2026-04-29T09:12:36.797Z</time></trkpt><trkpt lat="39.911412403685866" lon="9.461246515731931"><ele>843.0</ele><time>2026-04-29T09:12:37.797Z</time></trkpt><trkpt lat="39.91157755421268" lon="9.461262200566505"><ele>843.0</ele><time>2026-04-29T09:12:38.797Z</time></trkpt><trkpt lat="39.911754427540025" lon="9.461298877100583"><ele>843.0</ele><time>2026-04-29T09:12:39.797Z</time></trkpt><trkpt lat="39.91193037870448" lon="9.461345996479421"><ele>840.3333333333333</ele><time>2026-04-29T09:12:40.797Z</time></trkpt><trkpt lat="39.91211485966741" lon="9.461404825365467"><ele>837.6666666666666</ele><time>2026-04-29T09:12:41.797Z</time></trkpt><trkpt lat="39.91229994939726" lon="9.461464679852643"><ele>835.0</ele><time>2026-04-29T09:12:42.797Z</time></trkpt><trkpt lat="39.912488883839686" lon="9.461525041928548"><ele>833.3333333333333</ele><time>2026-04-29T09:12:43.797Z</time></trkpt><trkpt lat="39.912680933760626" lon="9.461587765733688"><ele>831.6666666666667</ele><time>2026-04-29T09:12:44.797Z</time></trkpt><trkpt lat="39.91286969156289" lon="9.46165202627731"><ele>830.0</ele><time>2026-04-29T09:12:45.797Z</time></trkpt><trkpt lat="39.913052798536334" lon="9.461715702601632"><ele>830.0</ele><time>2026-04-29T09:12:46.797Z</time></trkpt><trkpt lat="39.91322769818061" lon="9.461772768243323"><ele>830.0</ele><time>2026-04-29T09:12:47.797Z</time></trkpt><trkpt lat="39.913395978183615" lon="9.46182765724188"><ele>830.0</ele><time>2026-04-29T09:12:48.797Z</time></trkpt><trkpt lat="39.91356281778535" lon="9.461882117899792"><ele>830.6666666666667</ele><time>2026-04-29T09:12:49.797Z</time></trkpt><trkpt lat="39.91373070068474" lon="9.461934814960129"><ele>831.3333333333333</ele><time>2026-04-29T09:12:50.797Z</time></trkpt><trkpt lat="39.913895198620516" lon="9.461986849392758"><ele>832.0</ele><time>2026-04-29T09:12:51.797Z</time></trkpt><trkpt lat="39.91405753285234" lon="9.462041271635675"><ele>832.0</ele><time>2026-04-29T09:12:52.797Z</time></trkpt><trkpt lat="39.91420698962427" lon="9.46209280760716"><ele>832.0</ele><time>2026-04-29T09:12:53.797Z</time></trkpt><trkpt lat="39.91434022744317" lon="9.462139411264543"><ele>832.0</ele><time>2026-04-29T09:12:54.796Z</time></trkpt><trkpt lat="39.91446200468474" lon="9.462178941551809"><ele>832.0</ele><time>2026-04-29T09:12:55.796Z</time></trkpt><trkpt lat="39.9145596824082" lon="9.462212613714287"><ele>832.4000000000001</ele><time>2026-04-29T09:12:56.796Z</time></trkpt><trkpt lat="39.914651991568675" lon="9.46224526163929"><ele>832.8000000000001</ele><time>2026-04-29T09:12:57.796Z</time></trkpt><trkpt lat="39.91473923663331" lon="9.462274778232073"><ele>833.2</ele><time>2026-04-29T09:12:58.796Z</time></trkpt><trkpt lat="39.914824507026836" lon="9.46230328976487"><ele>833.6</ele><time>2026-04-29T09:12:59.796Z</time></trkpt><trkpt lat="39.9149161436738" lon="9.462331634695214"><ele>834.0</ele><time>2026-04-29T09:13:00.796Z</time></trkpt><trkpt lat="39.9150046760908" lon="9.462361257998873"><ele>833.1666666666666</ele><time>2026-04-29T09:13:01.796Z</time></trkpt><trkpt lat="39.91509281707039" lon="9.46239145673837"><ele>832.3333333333333</ele><time>2026-04-29T09:13:02.796Z</time></trkpt><trkpt lat="39.915175694651786" lon="9.46241759731071"><ele>831.5</ele><time>2026-04-29T09:13:03.796Z</time></trkpt><trkpt lat="39.915253965203014" lon="9.462442479532571"><ele>830.6666666666666</ele><time>2026-04-29T09:13:04.796Z</time></trkpt><trkpt lat="39.91533368883237" lon="9.462464909172754"><ele>829.8333333333333</ele><time>2026-04-29T09:13:05.796Z</time></trkpt><trkpt lat="39.91541343126146" lon="9.462488815961787"><ele>829.0</ele><time>2026-04-29T09:13:06.796Z</time></trkpt><trkpt lat="39.91548811088557" lon="9.4625156292936"><ele>828.9999999999999</ele><time>2026-04-29T09:13:07.796Z</time></trkpt><trkpt lat="39.91556440371928" lon="9.462542432079216"><ele>829.0</ele><time>2026-04-29T09:13:08.796Z</time></trkpt><trkpt lat="39.91562992102614" lon="9.462565344527048"><ele>829.0</ele><time>2026-04-29T09:13:09.796Z</time></trkpt><trkpt lat="39.91570145637427" lon="9.462593149291607"><ele>829.0</ele><time>2026-04-29T09:13:11.796Z</time></trkpt><trkpt lat="39.91578362620855" lon="9.462622229101223"><ele>828.9999999999999</ele><time>2026-04-29T09:13:14.796Z</time></trkpt><trkpt lat="39.91588401151579" lon="9.462658949509782"><ele>829.0</ele><time>2026-04-29T09:13:16.796Z</time></trkpt><trkpt lat="39.91594971691982" lon="9.462679293570625"><ele>827.6</ele><time>2026-04-29T09:13:17.796Z</time></trkpt><trkpt lat="39.91602399722219" lon="9.462704583288133"><ele>826.2</ele><time>2026-04-29T09:13:18.796Z</time></trkpt><trkpt lat="39.916114001919546" lon="9.462732846446427"><ele>824.8000000000001</ele><time>2026-04-29T09:13:19.796Z</time></trkpt><trkpt lat="39.916216444119534" lon="9.4627646217498"><ele>823.4000000000001</ele><time>2026-04-29T09:13:20.796Z</time></trkpt><trkpt lat="39.91632792346764" lon="9.462797253634484"><ele>822.0</ele><time>2026-04-29T09:13:21.796Z</time></trkpt><trkpt lat="39.91644836240348" lon="9.462831089770633"><ele>822.0</ele><time>2026-04-29T09:13:22.796Z</time></trkpt><trkpt lat="39.91656727705517" lon="9.462867137990575"><ele>822.0</ele><time>2026-04-29T09:13:23.796Z</time></trkpt><trkpt lat="39.91669834670849" lon="9.462909253765659"><ele>822.0</ele><time>2026-04-29T09:13:24.796Z</time></trkpt><trkpt lat="39.91682774041625" lon="9.462948223056275"><ele>822.0</ele><time>2026-04-29T09:13:25.796Z</time></trkpt><trkpt lat="39.91697413267469" lon="9.462994604251852"><ele>821.5</ele><time>2026-04-29T09:13:26.796Z</time></trkpt><trkpt lat="39.91711983126823" lon="9.463044317528155"><ele>821.0</ele><time>2026-04-29T09:13:27.796Z</time></trkpt><trkpt lat="39.91726238085524" lon="9.463102358217299"><ele>820.5</ele><time>2026-04-29T09:13:28.796Z</time></trkpt><trkpt lat="39.917398278767024" lon="9.463174937087423"><ele>820.0</ele><time>2026-04-29T09:13:29.796Z</time></trkpt><trkpt lat="39.91753345559058" lon="9.463260008092968"><ele>821.75</ele><time>2026-04-29T09:13:30.796Z</time></trkpt><trkpt lat="39.91765942040759" lon="9.463359883121605"><ele>823.5</ele><time>2026-04-29T09:13:31.796Z</time></trkpt><trkpt lat="39.917773809489205" lon="9.463468221244886"><ele>825.25</ele><time>2026-04-29T09:13:32.796Z</time></trkpt><trkpt lat="39.917886129634695" lon="9.463568492628802"><ele>827.0</ele><time>2026-04-29T09:13:33.796Z</time></trkpt><trkpt lat="39.917998326512844" lon="9.463658105090378"><ele>827.0</ele><time>2026-04-29T09:13:34.796Z</time></trkpt><trkpt lat="39.918110581061306" lon="9.463758089284294"><ele>827.0</ele><time>2026-04-29T09:13:35.796Z</time></trkpt><trkpt lat="39.91823798653395" lon="9.463804780122576"><ele>827.0</ele><time>2026-04-29T09:13:36.796Z</time></trkpt><trkpt lat="39.918367942842295" lon="9.46384871806744"><ele>827.0</ele><time>2026-04-29T09:13:37.796Z</time></trkpt><trkpt lat="39.91850687180632" lon="9.463879578790115"><ele>824.25</ele><time>2026-04-29T09:13:38.796Z</time></trkpt><trkpt lat="39.91864467999612" lon="9.46388738002696"><ele>821.5</ele><time>2026-04-29T09:13:39.796Z</time></trkpt><trkpt lat="39.91879129522442" lon="9.463874931906489"><ele>818.75</ele><time>2026-04-29T09:13:40.796Z</time></trkpt><trkpt lat="39.91894966949189" lon="9.463854656569467"><ele>816.0</ele><time>2026-04-29T09:13:41.796Z</time></trkpt><trkpt lat="39.91911208525036" lon="9.463841123315463"><ele>816.6666666666667</ele><time>2026-04-29T09:13:42.796Z</time></trkpt><trkpt lat="39.919281758987395" lon="9.463826165170113"><ele>817.3333333333334</ele><time>2026-04-29T09:13:43.796Z</time></trkpt><trkpt lat="39.91945142393797" lon="9.463811075180047"><ele>818.0</ele><time>2026-04-29T09:13:44.796Z</time></trkpt><trkpt lat="39.91961939819752" lon="9.463789240629547"><ele>817.6666666666667</ele><time>2026-04-29T09:13:45.796Z</time></trkpt><trkpt lat="39.91979082961841" lon="9.463769320287271"><ele>817.3333333333333</ele><time>2026-04-29T09:13:46.796Z</time></trkpt><trkpt lat="39.91996862786615" lon="9.463748875843311"><ele>817.0</ele><time>2026-04-29T09:13:47.796Z</time></trkpt><trkpt lat="39.92014275900336" lon="9.463731826089909"><ele>815.3333333333333</ele><time>2026-04-29T09:13:48.796Z</time></trkpt><trkpt lat="39.920318353573464" lon="9.463713000165775"><ele>813.6666666666667</ele><time>2026-04-29T09:13:49.796Z</time></trkpt><trkpt lat="39.92049805198357" lon="9.463691515400688"><ele>812.0</ele><time>2026-04-29T09:13:50.796Z</time></trkpt><trkpt lat="39.92067736358006" lon="9.463686029363815"><ele>812.0</ele><time>2026-04-29T09:13:51.796Z</time></trkpt><trkpt lat="39.92085993245855" lon="9.463695135057211"><ele>812.0</ele><time>2026-04-29T09:13:52.796Z</time></trkpt><trkpt lat="39.92104267613404" lon="9.463718401499973"><ele>812.0</ele><time>2026-04-29T09:13:53.796Z</time></trkpt><trkpt lat="39.92122721434881" lon="9.463752367693766"><ele>811.6666666666667</ele><time>2026-04-29T09:13:54.796Z</time></trkpt><trkpt lat="39.92140449274865" lon="9.463791305582465"><ele>811.3333333333333</ele><time>2026-04-29T09:13:55.796Z</time></trkpt><trkpt lat="39.9215875957119" lon="9.463826663777557"><ele>811.0</ele><time>2026-04-29T09:13:56.796Z</time></trkpt><trkpt lat="39.92176524964253" lon="9.463863717241756"><ele>811.0</ele><time>2026-04-29T09:13:57.796Z</time></trkpt><trkpt lat="39.92193274877089" lon="9.463906903625986"><ele>811.0</ele><time>2026-04-29T09:13:58.796Z</time></trkpt><trkpt lat="39.92209357089535" lon="9.463967049762793"><ele>811.0</ele><time>2026-04-29T09:13:59.796Z</time></trkpt><trkpt lat="39.92224850150221" lon="9.464052978845112"><ele>811.0</ele><time>2026-04-29T09:14:00.796Z</time></trkpt><trkpt lat="39.92239682836971" lon="9.464162205294864"><ele>811.0</ele><time>2026-04-29T09:14:01.795Z</time></trkpt><trkpt lat="39.92253302851581" lon="9.464288897305003"><ele>811.0</ele><time>2026-04-29T09:14:02.795Z</time></trkpt><trkpt lat="39.92266078063393" lon="9.464409608524662"><ele>811.6666666666666</ele><time>2026-04-29T09:14:03.795Z</time></trkpt><trkpt lat="39.92278265518693" lon="9.464546576646372"><ele>812.3333333333333</ele><time>2026-04-29T09:14:04.795Z</time></trkpt><trkpt lat="39.922881728476575" lon="9.464687143590924"><ele>813.0</ele><time>2026-04-29T09:14:05.795Z</time></trkpt><trkpt lat="39.9229733195005" lon="9.46484970107316"><ele>811.6666666666667</ele><time>2026-04-29T09:14:06.795Z</time></trkpt><trkpt lat="39.92306314578729" lon="9.465022068817628"><ele>810.3333333333334</ele><time>2026-04-29T09:14:07.795Z</time></trkpt><trkpt lat="39.92314640712022" lon="9.46520743893751"><ele>809.0</ele><time>2026-04-29T09:14:08.867Z</time></trkpt><trkpt lat="39.92322763552927" lon="9.465390521758154"><ele>809.0</ele><time>2026-04-29T09:14:09.867Z</time></trkpt><trkpt lat="39.92328239797511" lon="9.465571345031892"><ele>809.0</ele><time>2026-04-29T09:14:10.867Z</time></trkpt><trkpt lat="39.92330923012046" lon="9.465735226753885"><ele>809.0</ele><time>2026-04-29T09:14:11.867Z</time></trkpt><trkpt lat="39.92331571127693" lon="9.465905758227166"><ele>809.0</ele><time>2026-04-29T09:14:12.867Z</time></trkpt><trkpt lat="39.923313992587985" lon="9.466069402396611"><ele>809.0000000000001</ele><time>2026-04-29T09:14:13.867Z</time></trkpt><trkpt lat="39.92330604774023" lon="9.466196613008254"><ele>809.0</ele><time>2026-04-29T09:14:14.867Z</time></trkpt><trkpt lat="39.92329175229811" lon="9.466298380187586"><ele>809.0</ele><time>2026-04-29T09:14:15.867Z</time></trkpt><trkpt lat="39.92325323988759" lon="9.46638671663454"><ele>809.0</ele><time>2026-04-29T09:14:16.867Z</time></trkpt><trkpt lat="39.9232053731074" lon="9.466477476761503"><ele>809.0000000000001</ele><time>2026-04-29T09:14:17.867Z</time></trkpt><trkpt lat="39.92315842313979" lon="9.466540565272657"><ele>809.0</ele><time>2026-04-29T09:14:18.867Z</time></trkpt><trkpt lat="39.9230439245151" lon="9.466573133641232"><ele>808.6</ele><time>2026-04-29T09:14:20.867Z</time></trkpt><trkpt lat="39.92295700082407" lon="9.466578530685915"><ele>808.2</ele><time>2026-04-29T09:14:21.867Z</time></trkpt><trkpt lat="39.92285397952186" lon="9.466585742346101"><ele>807.8000000000001</ele><time>2026-04-29T09:14:22.867Z</time></trkpt><trkpt lat="39.92273626209589" lon="9.466600142547751"><ele>807.4000000000001</ele><time>2026-04-29T09:14:23.867Z</time></trkpt><trkpt lat="39.92264232601711" lon="9.466602581605683"><ele>807.0</ele><time>2026-04-29T09:14:24.866Z</time></trkpt><trkpt lat="39.92256157315536" lon="9.466650445933428"><ele>807.0</ele><time>2026-04-29T09:14:26.867Z</time></trkpt><trkpt lat="39.9225327743898" lon="9.466791625893816"><ele>807.0</ele><time>2026-04-29T09:14:28.867Z</time></trkpt><trkpt lat="39.92254054548986" lon="9.466878897632624"><ele>807.0</ele><time>2026-04-29T09:14:29.867Z</time></trkpt><trkpt lat="39.9225493126304" lon="9.466984377537155"><ele>807.0</ele><time>2026-04-29T09:14:30.867Z</time></trkpt><trkpt lat="39.92256025017957" lon="9.467116403955746"><ele>807.0</ele><time>2026-04-29T09:14:31.866Z</time></trkpt><trkpt lat="39.92258436740257" lon="9.467264707709171"><ele>807.0</ele><time>2026-04-29T09:14:32.866Z</time></trkpt><trkpt lat="39.922608407984065" lon="9.467414913245287"><ele>807.0</ele><time>2026-04-29T09:14:33.866Z</time></trkpt><trkpt lat="39.92263229247036" lon="9.467577695271705"><ele>807.0</ele><time>2026-04-29T09:14:34.867Z</time></trkpt><trkpt lat="39.92265244537955" lon="9.467746373702685"><ele>807.0</ele><time>2026-04-29T09:14:35.867Z</time></trkpt><trkpt lat="39.92268131046215" lon="9.467919052454212"><ele>807.75</ele><time>2026-04-29T09:14:36.866Z</time></trkpt><trkpt lat="39.92271191614278" lon="9.468079776597127"><ele>808.5</ele><time>2026-04-29T09:14:37.866Z</time></trkpt><trkpt lat="39.9227522660781" lon="9.46823886660916"><ele>809.25</ele><time>2026-04-29T09:14:38.866Z</time></trkpt><trkpt lat="39.922800934282186" lon="9.468385170655703"><ele>810.0</ele><time>2026-04-29T09:14:39.866Z</time></trkpt><trkpt lat="39.922867296875005" lon="9.468528520665012"><ele>810.0</ele><time>2026-04-29T09:14:40.866Z</time></trkpt><trkpt lat="39.92294161784948" lon="9.468674245621418"><ele>810.0</ele><time>2026-04-29T09:14:41.866Z</time></trkpt><trkpt lat="39.92301078995296" lon="9.468815645203785"><ele>810.0</ele><time>2026-04-29T09:14:42.866Z</time></trkpt><trkpt lat="39.92309600230289" lon="9.468966405038547"><ele>810.0</ele><time>2026-04-29T09:14:43.866Z</time></trkpt><trkpt lat="39.923177625366485" lon="9.469118834475312"><ele>810.25</ele><time>2026-04-29T09:14:44.866Z</time></trkpt><trkpt lat="39.92326870633135" lon="9.46927797798864"><ele>810.5</ele><time>2026-04-29T09:14:45.866Z</time></trkpt><trkpt lat="39.92335371830851" lon="9.469433390721274"><ele>810.75</ele><time>2026-04-29T09:14:46.866Z</time></trkpt><trkpt lat="39.92342619513402" lon="9.469581877785286"><ele>811.0</ele><time>2026-04-29T09:14:47.866Z</time></trkpt><trkpt lat="39.92347939761366" lon="9.469717052391056"><ele>811.0</ele><time>2026-04-29T09:14:48.866Z</time></trkpt><trkpt lat="39.92350287721562" lon="9.469836243219671"><ele>811.0</ele><time>2026-04-29T09:14:49.866Z</time></trkpt><trkpt lat="39.923503641495834" lon="9.46995027328664"><ele>811.0</ele><time>2026-04-29T09:14:50.866Z</time></trkpt><trkpt lat="39.923487028560125" lon="9.470070434631719"><ele>811.0</ele><time>2026-04-29T09:14:51.866Z</time></trkpt><trkpt lat="39.92344551024854" lon="9.470183428609428"><ele>811.0</ele><time>2026-04-29T09:14:52.866Z</time></trkpt><trkpt lat="39.92337734359968" lon="9.470281990485633"><ele>812.0</ele><time>2026-04-29T09:14:53.866Z</time></trkpt><trkpt lat="39.92329145874299" lon="9.470366278964272"><ele>813.0</ele><time>2026-04-29T09:14:54.866Z</time></trkpt><trkpt lat="39.92319480256923" lon="9.470438356542529"><ele>814.0</ele><time>2026-04-29T09:14:55.866Z</time></trkpt><trkpt lat="39.92308997649105" lon="9.470496181719172"><ele>815.0</ele><time>2026-04-29T09:14:56.866Z</time></trkpt><trkpt lat="39.92297672227977" lon="9.470538840436687"><ele>815.0</ele><time>2026-04-29T09:14:57.866Z</time></trkpt><trkpt lat="39.92285878855936" lon="9.470529000423836"><ele>815.0</ele><time>2026-04-29T09:14:58.866Z</time></trkpt><trkpt lat="39.92274377031004" lon="9.470556064803672"><ele>815.0</ele><time>2026-04-29T09:14:59.866Z</time></trkpt><trkpt lat="39.922623621802025" lon="9.470561262522343"><ele>815.0</ele><time>2026-04-29T09:15:00.866Z</time></trkpt><trkpt lat="39.922505104445136" lon="9.470572027212857"><ele>816.4</ele><time>2026-04-29T09:15:01.866Z</time></trkpt><trkpt lat="39.922398413262165" lon="9.47060409823755"><ele>817.8</ele><time>2026-04-29T09:15:02.866Z</time></trkpt><trkpt lat="39.922312079381726" lon="9.470650532523246"><ele>819.2</ele><time>2026-04-29T09:15:03.866Z</time></trkpt><trkpt lat="39.922244156216564" lon="9.470717727421695"><ele>820.6</ele><time>2026-04-29T09:15:04.866Z</time></trkpt><trkpt lat="39.922192325937935" lon="9.470815944039234"><ele>822.0</ele><time>2026-04-29T09:15:05.866Z</time></trkpt><trkpt lat="39.922162393751954" lon="9.470936619758056"><ele>822.0</ele><time>2026-04-29T09:15:06.866Z</time></trkpt><trkpt lat="39.92214966326132" lon="9.471070018695059"><ele>822.0</ele><time>2026-04-29T09:15:07.866Z</time></trkpt><trkpt lat="39.92214847098184" lon="9.471201159418897"><ele>822.0</ele><time>2026-04-29T09:15:08.866Z</time></trkpt><trkpt lat="39.92214669153813" lon="9.471328007635252"><ele>822.0</ele><time>2026-04-29T09:15:09.866Z</time></trkpt><trkpt lat="39.92212201361135" lon="9.47144427315945"><ele>822.0</ele><time>2026-04-29T09:15:10.866Z</time></trkpt><trkpt lat="39.922063848504386" lon="9.47156863144703"><ele>822.25</ele><time>2026-04-29T09:15:11.866Z</time></trkpt><trkpt lat="39.92197480699769" lon="9.471697916518174"><ele>822.5</ele><time>2026-04-29T09:15:12.866Z</time></trkpt><trkpt lat="39.9218652404635" lon="9.471822604636584"><ele>822.75</ele><time>2026-04-29T09:15:13.866Z</time></trkpt><trkpt lat="39.92177994716794" lon="9.471936587992301"><ele>823.0</ele><time>2026-04-29T09:15:14.866Z</time></trkpt><trkpt lat="39.92171075554715" lon="9.47208379413871"><ele>821.0</ele><time>2026-04-29T09:15:15.866Z</time></trkpt><trkpt lat="39.92167244458428" lon="9.472253187141805"><ele>819.0</ele><time>2026-04-29T09:15:16.866Z</time></trkpt><trkpt lat="39.92164338574616" lon="9.472393598102212"><ele>817.0</ele><time>2026-04-29T09:15:17.866Z</time></trkpt><trkpt lat="39.92161035762739" lon="9.472533952807192"><ele>815.0</ele><time>2026-04-29T09:15:18.866Z</time></trkpt><trkpt lat="39.921572700796794" lon="9.472622736515326"><ele>813.0</ele><time>2026-04-29T09:15:19.866Z</time></trkpt><trkpt lat="39.921561834339435" lon="9.472708790856316"><ele>813.0</ele><time>2026-04-29T09:15:20.866Z</time></trkpt><trkpt lat="39.921520528421006" lon="9.47283526748083"><ele>813.0</ele><time>2026-04-29T09:15:22.866Z</time></trkpt><trkpt lat="39.921626310261686" lon="9.472866471296959"><ele>813.0</ele><time>2026-04-29T09:15:28.866Z</time></trkpt><trkpt lat="39.921707176627685" lon="9.472807985217099"><ele>813.0</ele><time>2026-04-29T09:15:30.866Z</time></trkpt><trkpt lat="39.92179388985822" lon="9.472761790387983"><ele>813.0</ele><time>2026-04-29T09:15:32.866Z</time></trkpt><trkpt lat="39.9218913744627" lon="9.472753591877105"><ele>811.5714285714286</ele><time>2026-04-29T09:15:34.866Z</time></trkpt><trkpt lat="39.921977219923335" lon="9.472761746679522"><ele>810.1428571428571</ele><time>2026-04-29T09:15:36.866Z</time></trkpt><trkpt lat="39.92204368057901" lon="9.472801537478547"><ele>808.7142857142857</ele><time>2026-04-29T09:15:39.866Z</time></trkpt><trkpt lat="39.92209866877246" lon="9.472844295922917"><ele>807.2857142857142</ele><time>2026-04-29T09:15:42.866Z</time></trkpt><trkpt lat="39.92216266522094" lon="9.472845670248352"><ele>805.8571428571429</ele><time>2026-04-29T09:15:46.866Z</time></trkpt><trkpt lat="39.92223074889762" lon="9.472847990160398"><ele>804.4285714285713</ele><time>2026-04-29T09:15:48.866Z</time></trkpt><trkpt lat="39.9222961789481" lon="9.47286227205272"><ele>803.0</ele><time>2026-04-29T09:15:50.866Z</time></trkpt><trkpt lat="39.92237425796628" lon="9.47287836217322"><ele>803.0000000000001</ele><time>2026-04-29T09:15:53.866Z</time></trkpt><trkpt lat="39.92243621977948" lon="9.472901755550199"><ele>803.0</ele><time>2026-04-29T09:15:56.866Z</time></trkpt><trkpt lat="39.92248613810134" lon="9.472964397536037"><ele>803.0</ele><time>2026-04-29T09:16:00.866Z</time></trkpt><trkpt lat="39.92256753515916" lon="9.473000031142043"><ele>803.0</ele><time>2026-04-29T09:16:05.866Z</time></trkpt><trkpt lat="39.92263644318749" lon="9.473059933952468"><ele>803.0000000000001</ele><time>2026-04-29T09:16:08.866Z</time></trkpt><trkpt lat="39.92268966131631" lon="9.47315262000279"><ele>803.0</ele><time>2026-04-29T09:16:11.866Z</time></trkpt><trkpt lat="39.92272571126931" lon="9.473225139879858"><ele>802.6666666666667</ele><time>2026-04-29T09:16:13.866Z</time></trkpt><trkpt lat="39.92275905158476" lon="9.4733208353723"><ele>802.3333333333334</ele><time>2026-04-29T09:16:15.866Z</time></trkpt><trkpt lat="39.9227780940622" lon="9.473403045568755"><ele>802.0</ele><time>2026-04-29T09:16:17.866Z</time></trkpt><trkpt lat="39.92277989430491" lon="9.47351298258065"><ele>801.6666666666667</ele><time>2026-04-29T09:16:19.866Z</time></trkpt><trkpt lat="39.92276708301288" lon="9.47362020383595"><ele>801.3333333333334</ele><time>2026-04-29T09:16:21.866Z</time></trkpt><trkpt lat="39.92275177424574" lon="9.473703799116883"><ele>801.0</ele><time>2026-04-29T09:16:23.866Z</time></trkpt><trkpt lat="39.922811419029465" lon="9.473753819964806"><ele>804.0</ele><time>2026-04-29T09:16:28.866Z</time></trkpt><trkpt lat="39.92269780140309" lon="9.474314478768045"><ele>807.0</ele><time>2026-04-29T09:16:31.865Z</time></trkpt><trkpt lat="39.922755620622695" lon="9.47443226652443"><ele>807.0</ele><time>2026-04-29T09:16:33.864Z</time></trkpt><trkpt lat="39.922818203479764" lon="9.474536008295248"><ele>807.0</ele><time>2026-04-29T09:16:35.864Z</time></trkpt><trkpt lat="39.922850623808465" lon="9.474645631299442"><ele>807.0</ele><time>2026-04-29T09:16:37.864Z</time></trkpt><trkpt lat="39.922864227756904" lon="9.474746834715782"><ele>807.0</ele><time>2026-04-29T09:16:39.864Z</time></trkpt><trkpt lat="39.92279227120446" lon="9.474810952131499"><ele>807.0</ele><time>2026-04-29T09:16:42.864Z</time></trkpt><trkpt lat="39.92270323102512" lon="9.474803186505866"><ele>807.0</ele><time>2026-04-29T09:16:44.864Z</time></trkpt><trkpt lat="39.92262675537699" lon="9.474777661114164"><ele>807.2857142857143</ele><time>2026-04-29T09:16:46.864Z</time></trkpt><trkpt lat="39.92257402144422" lon="9.474729818807411"><ele>807.5714285714286</ele><time>2026-04-29T09:16:48.864Z</time></trkpt><trkpt lat="39.922523385996634" lon="9.474818051550448"><ele>807.8571428571429</ele><time>2026-04-29T09:25:36.858Z</time></trkpt><trkpt lat="39.92252808893949" lon="9.474726564236413"><ele>808.1428571428571</ele><time>2026-04-29T09:25:56.858Z</time></trkpt><trkpt lat="39.922580085762895" lon="9.474787082257297"><ele>808.4285714285714</ele><time>2026-04-29T09:29:40.855Z</time></trkpt><trkpt lat="39.92265104056476" lon="9.474790763752525"><ele>808.7142857142858</ele><time>2026-04-29T09:29:42.856Z</time></trkpt><trkpt lat="39.92273455695395" lon="9.47478885211664"><ele>809.0</ele><time>2026-04-29T09:29:44.856Z</time></trkpt><trkpt lat="39.922852961408374" lon="9.474800051919722"><ele>809.3333333333334</ele><time>2026-04-29T09:29:46.856Z</time></trkpt><trkpt lat="39.92292419332949" lon="9.474796200942459"><ele>809.6666666666667</ele><time>2026-04-29T09:29:47.856Z</time></trkpt><trkpt lat="39.92299414702022" lon="9.474790867657727"><ele>810.0</ele><time>2026-04-29T09:29:48.856Z</time></trkpt><trkpt lat="39.92306908623753" lon="9.474782186722214"><ele>810.3333333333333</ele><time>2026-04-29T09:29:49.856Z</time></trkpt><trkpt lat="39.9231523873236" lon="9.474756610754232"><ele>810.6666666666666</ele><time>2026-04-29T09:29:50.856Z</time></trkpt><trkpt lat="39.923251581224214" lon="9.474727570238423"><ele>811.0</ele><time>2026-04-29T09:29:51.856Z</time></trkpt><trkpt lat="39.9233449250246" lon="9.474699505509012"><ele>811.4</ele><time>2026-04-29T09:29:52.856Z</time></trkpt><trkpt lat="39.92344821416218" lon="9.474678010308855"><ele>811.8</ele><time>2026-04-29T09:29:53.856Z</time></trkpt><trkpt lat="39.92355516190434" lon="9.47466034656727"><ele>812.1999999999999</ele><time>2026-04-29T09:29:54.856Z</time></trkpt><trkpt lat="39.92366416066148" lon="9.474635096972936"><ele>812.5999999999999</ele><time>2026-04-29T09:29:55.856Z</time></trkpt><trkpt lat="39.92376873040802" lon="9.47462104113063"><ele>813.0</ele><time>2026-04-29T09:29:56.856Z</time></trkpt><trkpt lat="39.92387844963757" lon="9.47460960673528"><ele>813.0</ele><time>2026-04-29T09:29:57.856Z</time></trkpt><trkpt lat="39.92398719072999" lon="9.47461466926997"><ele>813.0</ele><time>2026-04-29T09:29:58.856Z</time></trkpt><trkpt lat="39.9241023089669" lon="9.474636525676253"><ele>813.0</ele><time>2026-04-29T09:29:59.856Z</time></trkpt><trkpt lat="39.924218367237025" lon="9.474655139571695"><ele>813.0</ele><time>2026-04-29T09:30:00.856Z</time></trkpt><trkpt lat="39.92433224670902" lon="9.474681009280848"><ele>814.5</ele><time>2026-04-29T09:30:01.856Z</time></trkpt><trkpt lat="39.92444999452327" lon="9.474696653984882"><ele>816.0</ele><time>2026-04-29T09:30:02.856Z</time></trkpt><trkpt lat="39.924571785637916" lon="9.474703516208814"><ele>817.5</ele><time>2026-04-29T09:30:03.856Z</time></trkpt><trkpt lat="39.92469285147029" lon="9.474682690923927"><ele>819.0</ele><time>2026-04-29T09:30:04.856Z</time></trkpt><trkpt lat="39.92480167480281" lon="9.474661908854802"><ele>819.0</ele><time>2026-04-29T09:30:05.856Z</time></trkpt><trkpt lat="39.92490640469545" lon="9.474641908509827"><ele>819.0</ele><time>2026-04-29T09:30:06.856Z</time></trkpt><trkpt lat="39.92500565674665" lon="9.474622954261847"><ele>819.0</ele><time>2026-04-29T09:30:07.856Z</time></trkpt><trkpt lat="39.92510098108915" lon="9.474593309071752"><ele>819.0</ele><time>2026-04-29T09:30:08.856Z</time></trkpt><trkpt lat="39.92517778499988" lon="9.474597094357836"><ele>819.0</ele><time>2026-04-29T09:30:09.856Z</time></trkpt><trkpt lat="39.92524213602354" lon="9.474633613360663"><ele>821.3333333333334</ele><time>2026-04-29T09:30:10.856Z</time></trkpt><trkpt lat="39.92528873372001" lon="9.474769384433142"><ele>823.6666666666667</ele><time>2026-04-29T09:30:12.856Z</time></trkpt><trkpt lat="39.92526903137685" lon="9.474855943631795"><ele>826.0</ele><time>2026-04-29T09:30:13.856Z</time></trkpt><trkpt lat="39.92524435192905" lon="9.474950969040037"><ele>828.3333333333334</ele><time>2026-04-29T09:30:14.856Z</time></trkpt><trkpt lat="39.92520592173691" lon="9.475043570355332"><ele>830.6666666666667</ele><time>2026-04-29T09:30:15.856Z</time></trkpt><trkpt lat="39.92517178068079" lon="9.475114008816163"><ele>833.0</ele><time>2026-04-29T09:30:16.856Z</time></trkpt><trkpt lat="39.925130774714525" lon="9.475223525262289"><ele>833.0</ele><time>2026-04-29T09:30:17.856Z</time></trkpt><trkpt lat="39.9251002701839" lon="9.47535234808916"><ele>833.0</ele><time>2026-04-29T09:30:18.856Z</time></trkpt><trkpt lat="39.92508071932066" lon="9.475468197397566"><ele>833.0</ele><time>2026-04-29T09:30:19.856Z</time></trkpt><trkpt lat="39.92508578756155" lon="9.475592419339652"><ele>833.0</ele><time>2026-04-29T09:30:20.856Z</time></trkpt><trkpt lat="39.92511152740096" lon="9.475721347931197"><ele>833.0</ele><time>2026-04-29T09:30:21.856Z</time></trkpt><trkpt lat="39.9251471044482" lon="9.475842551041577"><ele>833.0</ele><time>2026-04-29T09:30:22.856Z</time></trkpt><trkpt lat="39.92519772411373" lon="9.475961572896498"><ele>833.0</ele><time>2026-04-29T09:30:23.856Z</time></trkpt><trkpt lat="39.92525760610684" lon="9.476074881765848"><ele>833.0</ele><time>2026-04-29T09:30:24.856Z</time></trkpt><trkpt lat="39.92532794069875" lon="9.47616172883533"><ele>833.0</ele><time>2026-04-29T09:30:25.856Z</time></trkpt><trkpt lat="39.92540800402506" lon="9.47621968535708"><ele>833.0</ele><time>2026-04-29T09:30:26.856Z</time></trkpt><trkpt lat="39.92549372566563" lon="9.47628308009092"><ele>833.0000000000001</ele><time>2026-04-29T09:30:27.856Z</time></trkpt><trkpt lat="39.92558343278325" lon="9.476295033259891"><ele>833.0</ele><time>2026-04-29T09:30:28.856Z</time></trkpt><trkpt lat="39.92567602143547" lon="9.476283419712141"><ele>833.0</ele><time>2026-04-29T09:30:29.856Z</time></trkpt><trkpt lat="39.925753296598465" lon="9.476305361504174"><ele>833.0</ele><time>2026-04-29T09:30:30.857Z</time></trkpt><trkpt lat="39.925817565756454" lon="9.476360590051078"><ele>833.0000000000001</ele><time>2026-04-29T09:30:31.857Z</time></trkpt><trkpt lat="39.92585302115917" lon="9.476429857906277"><ele>833.0</ele><time>2026-04-29T09:30:32.857Z</time></trkpt><trkpt lat="39.92587458354936" lon="9.476528274497849"><ele>833.0</ele><time>2026-04-29T09:30:33.857Z</time></trkpt><trkpt lat="39.92587158701664" lon="9.476658184033912"><ele>833.0</ele><time>2026-04-29T09:30:34.857Z</time></trkpt><trkpt lat="39.925858608700324" lon="9.476793009986984"><ele>833.0</ele><time>2026-04-29T09:30:35.857Z</time></trkpt><trkpt lat="39.92584510369297" lon="9.476938087017503"><ele>833.0</ele><time>2026-04-29T09:30:36.857Z</time></trkpt><trkpt lat="39.92584207551563" lon="9.477096503627171"><ele>833.0</ele><time>2026-04-29T09:30:37.857Z</time></trkpt><trkpt lat="39.92583754741326" lon="9.477246939498873"><ele>832.75</ele><time>2026-04-29T09:30:38.857Z</time></trkpt><trkpt lat="39.92582636501258" lon="9.477389042003423"><ele>832.5</ele><time>2026-04-29T09:30:39.857Z</time></trkpt><trkpt lat="39.925832767493674" lon="9.477522196559468"><ele>832.25</ele><time>2026-04-29T09:30:40.857Z</time></trkpt><trkpt lat="39.92583886280604" lon="9.477683452413716"><ele>832.0</ele><time>2026-04-29T09:30:41.857Z</time></trkpt><trkpt lat="39.92590647944916" lon="9.477816206544222"><ele>834.4000000000001</ele><time>2026-04-29T09:30:42.857Z</time></trkpt><trkpt lat="39.926007472152364" lon="9.477899531652216"><ele>836.8000000000001</ele><time>2026-04-29T09:30:43.857Z</time></trkpt><trkpt lat="39.9260873174421" lon="9.477920476966966"><ele>839.2</ele><time>2026-04-29T09:30:44.857Z</time></trkpt><trkpt lat="39.92619776746796" lon="9.477898585123649"><ele>841.6</ele><time>2026-04-29T09:30:46.857Z</time></trkpt><trkpt lat="39.92626923218125" lon="9.477926145938275"><ele>844.0</ele><time>2026-04-29T09:30:47.857Z</time></trkpt><trkpt lat="39.92633786720621" lon="9.477984381133396"><ele>844.0</ele><time>2026-04-29T09:30:48.857Z</time></trkpt><trkpt lat="39.92637645040112" lon="9.478067422059013"><ele>844.0</ele><time>2026-04-29T09:30:49.857Z</time></trkpt><trkpt lat="39.92639755977199" lon="9.478173930537826"><ele>844.0</ele><time>2026-04-29T09:30:50.857Z</time></trkpt><trkpt lat="39.92643767564166" lon="9.478305346527343"><ele>844.0</ele><time>2026-04-29T09:30:51.857Z</time></trkpt><trkpt lat="39.92648909486451" lon="9.478429999792485"><ele>844.0</ele><time>2026-04-29T09:30:52.857Z</time></trkpt><trkpt lat="39.92655010203394" lon="9.478538656376534"><ele>844.0</ele><time>2026-04-29T09:30:53.857Z</time></trkpt><trkpt lat="39.92662584715324" lon="9.478637998408953"><ele>844.0</ele><time>2026-04-29T09:30:54.857Z</time></trkpt><trkpt lat="39.92670824838764" lon="9.478713689745762"><ele>844.0</ele><time>2026-04-29T09:30:55.857Z</time></trkpt><trkpt lat="39.92680004054054" lon="9.478803667595718"><ele>844.0</ele><time>2026-04-29T09:30:56.857Z</time></trkpt><trkpt lat="39.926909633232555" lon="9.478848192361804"><ele>844.0</ele><time>2026-04-29T09:30:57.856Z</time></trkpt><trkpt lat="39.92702047801204" lon="9.478873649987086"><ele>845.0</ele><time>2026-04-29T09:30:58.856Z</time></trkpt><trkpt lat="39.92713054230019" lon="9.47889526904404"><ele>846.0</ele><time>2026-04-29T09:30:59.856Z</time></trkpt><trkpt lat="39.92721376695626" lon="9.478989193699814"><ele>847.0</ele><time>2026-04-29T09:31:00.856Z</time></trkpt><trkpt lat="39.927292128042254" lon="9.47909611485445"><ele>848.0</ele><time>2026-04-29T09:31:01.856Z</time></trkpt><trkpt lat="39.92737142693356" lon="9.47920837333087"><ele>848.0</ele><time>2026-04-29T09:31:02.856Z</time></trkpt><trkpt lat="39.92745314210533" lon="9.479310635424813"><ele>848.0</ele><time>2026-04-29T09:31:03.856Z</time></trkpt><trkpt lat="39.92754476713094" lon="9.479399336544972"><ele>848.0</ele><time>2026-04-29T09:31:04.856Z</time></trkpt><trkpt lat="39.92764807685178" lon="9.479448888556202"><ele>848.0</ele><time>2026-04-29T09:31:05.856Z</time></trkpt><trkpt lat="39.92775158820552" lon="9.479465125814372"><ele>848.0</ele><time>2026-04-29T09:31:06.856Z</time></trkpt><trkpt lat="39.92785407296817" lon="9.47944503692635"><ele>848.2</ele><time>2026-04-29T09:31:07.856Z</time></trkpt><trkpt lat="39.92793941149381" lon="9.479469923301613"><ele>848.4</ele><time>2026-04-29T09:31:08.856Z</time></trkpt><trkpt lat="39.928010286255386" lon="9.479539232739377"><ele>848.6</ele><time>2026-04-29T09:31:09.856Z</time></trkpt><trkpt lat="39.92807250506518" lon="9.479646454689973"><ele>848.8000000000001</ele><time>2026-04-29T09:31:10.856Z</time></trkpt><trkpt lat="39.92809843915363" lon="9.47978772149095"><ele>849.0</ele><time>2026-04-29T09:31:11.856Z</time></trkpt><trkpt lat="39.92813555605564" lon="9.479920249314368"><ele>849.0</ele><time>2026-04-29T09:31:12.855Z</time></trkpt><trkpt lat="39.92819068169852" lon="9.480076592696127"><ele>849.0</ele><time>2026-04-29T09:31:13.855Z</time></trkpt><trkpt lat="39.92828125712619" lon="9.480194835452531"><ele>849.0</ele><time>2026-04-29T09:31:14.855Z</time></trkpt><trkpt lat="39.92837561290256" lon="9.480315073910731"><ele>849.0</ele><time>2026-04-29T09:31:15.855Z</time></trkpt><trkpt lat="39.928499323984845" lon="9.480425114018956"><ele>850.5</ele><time>2026-04-29T09:31:16.855Z</time></trkpt><trkpt lat="39.92864441000453" lon="9.48040503133798"><ele>852.0</ele><time>2026-04-29T09:31:17.855Z</time></trkpt><trkpt lat="39.92853089657981" lon="9.480308870187455"><ele>853.5</ele><time>2026-04-29T09:31:18.855Z</time></trkpt><trkpt lat="39.92861430327615" lon="9.48027893095493"><ele>855.0</ele><time>2026-04-29T09:31:19.855Z</time></trkpt><trkpt lat="39.928683064535406" lon="9.480203192701516"><ele>855.0</ele><time>2026-04-29T09:31:20.855Z</time></trkpt><trkpt lat="39.928736962574355" lon="9.480117746891205"><ele>855.0</ele><time>2026-04-29T09:31:21.855Z</time></trkpt><trkpt lat="39.92878073259291" lon="9.480015304506804"><ele>855.0</ele><time>2026-04-29T09:31:22.855Z</time></trkpt><trkpt lat="39.92881787372218" lon="9.479918107620628"><ele>855.0</ele><time>2026-04-29T09:31:23.855Z</time></trkpt><trkpt lat="39.92884609523224" lon="9.47979416298649"><ele>855.0</ele><time>2026-04-29T09:31:24.855Z</time></trkpt><trkpt lat="39.928893153750565" lon="9.479694563349545"><ele>855.0</ele><time>2026-04-29T09:31:25.854Z</time></trkpt><trkpt lat="39.92894948981693" lon="9.479627515516524"><ele>855.0</ele><time>2026-04-29T09:31:26.854Z</time></trkpt><trkpt lat="39.9290196893706" lon="9.479608849396527"><ele>855.0</ele><time>2026-04-29T09:31:27.854Z</time></trkpt><trkpt lat="39.929104474757864" lon="9.479668100140703"><ele>855.0</ele><time>2026-04-29T09:31:28.854Z</time></trkpt><trkpt lat="39.929160645712024" lon="9.479728759801672"><ele>855.0</ele><time>2026-04-29T09:31:29.854Z</time></trkpt><trkpt lat="39.92923845213787" lon="9.479781698160984"><ele>855.0</ele><time>2026-04-29T09:31:30.854Z</time></trkpt><trkpt lat="39.929319200971904" lon="9.479830675562457"><ele>855.0</ele><time>2026-04-29T09:31:31.854Z</time></trkpt><trkpt lat="39.929415983251474" lon="9.479874209458929"><ele>856.0</ele><time>2026-04-29T09:31:32.854Z</time></trkpt><trkpt lat="39.92951334137322" lon="9.479884658235992"><ele>857.0</ele><time>2026-04-29T09:31:33.854Z</time></trkpt><trkpt lat="39.929605574475666" lon="9.479856114631778"><ele>858.0</ele><time>2026-04-29T09:31:34.854Z</time></trkpt><trkpt lat="39.929707794919025" lon="9.47981220869804"><ele>859.0</ele><time>2026-04-29T09:31:35.854Z</time></trkpt><trkpt lat="39.92981913246285" lon="9.479768571485826"><ele>860.0</ele><time>2026-04-29T09:31:36.854Z</time></trkpt><trkpt lat="39.929926429588264" lon="9.479753440053118"><ele>860.0</ele><time>2026-04-29T09:31:37.854Z</time></trkpt><trkpt lat="39.93003597709099" lon="9.479762867841513"><ele>860.0</ele><time>2026-04-29T09:31:38.854Z</time></trkpt><trkpt lat="39.930136715163734" lon="9.479793623970654"><ele>860.0</ele><time>2026-04-29T09:31:39.854Z</time></trkpt><trkpt lat="39.93023415193924" lon="9.479831752432975"><ele>860.0</ele><time>2026-04-29T09:31:40.854Z</time></trkpt><trkpt lat="39.93032671774899" lon="9.479907455082257"><ele>860.0</ele><time>2026-04-29T09:31:41.854Z</time></trkpt><trkpt lat="39.93037433861056" lon="9.47998783314629"><ele>862.0</ele><time>2026-04-29T09:31:42.854Z</time></trkpt><trkpt lat="39.930396983007356" lon="9.480095251174571"><ele>864.0</ele><time>2026-04-29T09:31:43.854Z</time></trkpt><trkpt lat="39.9303868785934" lon="9.480218746105264"><ele>866.0</ele><time>2026-04-29T09:31:44.854Z</time></trkpt><trkpt lat="39.93036839022815" lon="9.480333151899513"><ele>868.0</ele><time>2026-04-29T09:31:45.854Z</time></trkpt><trkpt lat="39.93036740270794" lon="9.48045571221605"><ele>870.0</ele><time>2026-04-29T09:31:46.854Z</time></trkpt><trkpt lat="39.930401407185954" lon="9.48058613314175"><ele>870.0</ele><time>2026-04-29T09:31:47.854Z</time></trkpt><trkpt lat="39.93045065924398" lon="9.480712030466357"><ele>870.0</ele><time>2026-04-29T09:31:48.854Z</time></trkpt><trkpt lat="39.93051017827092" lon="9.480823311851386"><ele>870.0</ele><time>2026-04-29T09:31:49.854Z</time></trkpt><trkpt lat="39.93058083168673" lon="9.48093001293674"><ele>870.0</ele><time>2026-04-29T09:31:50.854Z</time></trkpt><trkpt lat="39.930647956684915" lon="9.481027915822503"><ele>870.0</ele><time>2026-04-29T09:31:51.854Z</time></trkpt><trkpt lat="39.93072544583829" lon="9.481084694404563"><ele>870.0</ele><time>2026-04-29T09:31:52.854Z</time></trkpt><trkpt lat="39.930805171485375" lon="9.481137699117602"><ele>870.0</ele><time>2026-04-29T09:31:53.854Z</time></trkpt><trkpt lat="39.93090108516369" lon="9.481139557043502"><ele>870.0</ele><time>2026-04-29T09:31:54.854Z</time></trkpt><trkpt lat="39.931004560334834" lon="9.481125667061148"><ele>870.0</ele><time>2026-04-29T09:31:55.854Z</time></trkpt><trkpt lat="39.93111797639603" lon="9.48107295065952"><ele>870.0</ele><time>2026-04-29T09:31:56.854Z</time></trkpt><trkpt lat="39.931214815779406" lon="9.48098711488582"><ele>870.6</ele><time>2026-04-29T09:31:57.854Z</time></trkpt><trkpt lat="39.93129273228849" lon="9.480871070697948"><ele>871.2</ele><time>2026-04-29T09:31:58.854Z</time></trkpt><trkpt lat="39.93137195302286" lon="9.480763997834956"><ele>871.8</ele><time>2026-04-29T09:31:59.854Z</time></trkpt><trkpt lat="39.93144874794527" lon="9.480671938274762"><ele>872.4</ele><time>2026-04-29T09:32:00.854Z</time></trkpt><trkpt lat="39.93152828692689" lon="9.480604096435156"><ele>873.0</ele><time>2026-04-29T09:32:01.854Z</time></trkpt><trkpt lat="39.93162218229745" lon="9.480571720670639"><ele>873.0</ele><time>2026-04-29T09:32:02.854Z</time></trkpt><trkpt lat="39.93169801490849" lon="9.480604842731818"><ele>873.0</ele><time>2026-04-29T09:32:03.854Z</time></trkpt><trkpt lat="39.93179192262586" lon="9.480624334201112"><ele>873.0</ele><time>2026-04-29T09:32:04.854Z</time></trkpt><trkpt lat="39.93189659169318" lon="9.480652349113916"><ele>873.0</ele><time>2026-04-29T09:32:05.854Z</time></trkpt><trkpt lat="39.93201102506653" lon="9.48065185089181"><ele>873.0</ele><time>2026-04-29T09:32:06.854Z</time></trkpt><trkpt lat="39.93213459309194" lon="9.480621258814075"><ele>875.0</ele><time>2026-04-29T09:32:07.854Z</time></trkpt><trkpt lat="39.93225102001031" lon="9.480583642728183"><ele>877.0</ele><time>2026-04-29T09:32:08.854Z</time></trkpt><trkpt lat="39.9323889121122" lon="9.480539576074774"><ele>879.0</ele><time>2026-04-29T09:32:09.854Z</time></trkpt><trkpt lat="39.93251488207159" lon="9.480499319439165"><ele>881.0</ele><time>2026-04-29T09:32:10.854Z</time></trkpt><trkpt lat="39.9326505062143" lon="9.480457378757011"><ele>880.25</ele><time>2026-04-29T09:32:11.854Z</time></trkpt><trkpt lat="39.932787856274196" lon="9.480415299630748"><ele>879.5</ele><time>2026-04-29T09:32:12.854Z</time></trkpt><trkpt lat="39.93292021027952" lon="9.480374813895155"><ele>878.75</ele><time>2026-04-29T09:32:13.854Z</time></trkpt><trkpt lat="39.93304941908215" lon="9.48033538529694"><ele>878.0</ele><time>2026-04-29T09:32:14.854Z</time></trkpt><trkpt lat="39.93318321598406" lon="9.480294556615068"><ele>878.0</ele><time>2026-04-29T09:32:15.854Z</time></trkpt><trkpt lat="39.9333192677011" lon="9.480252456588552"><ele>878.0</ele><time>2026-04-29T09:32:16.854Z</time></trkpt><trkpt lat="39.93345298661341" lon="9.480206111453203"><ele>878.0</ele><time>2026-04-29T09:32:17.854Z</time></trkpt><trkpt lat="39.9335849588112" lon="9.480149287252898"><ele>878.0</ele><time>2026-04-29T09:32:18.854Z</time></trkpt><trkpt lat="39.93370692983254" lon="9.480080268455229"><ele>878.75</ele><time>2026-04-29T09:32:19.854Z</time></trkpt><trkpt lat="39.933822579359045" lon="9.480006658539008"><ele>879.5</ele><time>2026-04-29T09:32:20.854Z</time></trkpt><trkpt lat="39.93394947740758" lon="9.479925889036595"><ele>880.25</ele><time>2026-04-29T09:32:21.854Z</time></trkpt><trkpt lat="39.934065520103864" lon="9.47983389753444"><ele>881.0</ele><time>2026-04-29T09:32:22.854Z</time></trkpt><trkpt lat="39.934192125052334" lon="9.479775305289486"><ele>882.5</ele><time>2026-04-29T09:32:23.854Z</time></trkpt><trkpt lat="39.93430272225644" lon="9.479681158975614"><ele>884.0</ele><time>2026-04-29T09:32:24.854Z</time></trkpt><trkpt lat="39.9344204213758" lon="9.479615413716012"><ele>885.5</ele><time>2026-04-29T09:32:25.854Z</time></trkpt><trkpt lat="39.934509186248945" lon="9.479497137869197"><ele>887.0</ele><time>2026-04-29T09:32:26.854Z</time></trkpt><trkpt lat="39.93460474947061" lon="9.479393302843288"><ele>884.0</ele><time>2026-04-29T09:32:27.854Z</time></trkpt><trkpt lat="39.934692027357386" lon="9.479266810284544"><ele>881.0</ele><time>2026-04-29T09:32:28.854Z</time></trkpt><trkpt lat="39.93478187325597" lon="9.479153324078162"><ele>878.0</ele><time>2026-04-29T09:32:29.854Z</time></trkpt><trkpt lat="39.93488581805006" lon="9.479059934406935"><ele>875.0</ele><time>2026-04-29T09:32:30.854Z</time></trkpt><trkpt lat="39.93499972393729" lon="9.478981031870116"><ele>874.75</ele><time>2026-04-29T09:32:31.854Z</time></trkpt><trkpt lat="39.9351316150546" lon="9.478929365442895"><ele>874.5</ele><time>2026-04-29T09:32:32.854Z</time></trkpt><trkpt lat="39.9352601734576" lon="9.478879056608614"><ele>874.25</ele><time>2026-04-29T09:32:33.854Z</time></trkpt><trkpt lat="39.935391725544214" lon="9.478810836000541"><ele>874.0</ele><time>2026-04-29T09:32:34.854Z</time></trkpt><trkpt lat="39.93552706647414" lon="9.478733246412352"><ele>873.5</ele><time>2026-04-29T09:32:35.854Z</time></trkpt><trkpt lat="39.93566242292149" lon="9.478678874778483"><ele>873.0</ele><time>2026-04-29T09:32:36.854Z</time></trkpt><trkpt lat="39.93580390292315" lon="9.478604962941242"><ele>872.5</ele><time>2026-04-29T09:32:37.854Z</time></trkpt><trkpt lat="39.935935448985354" lon="9.478544297319795"><ele>872.0</ele><time>2026-04-29T09:32:38.854Z</time></trkpt><trkpt lat="39.93605962336341" lon="9.478486739311139"><ele>871.25</ele><time>2026-04-29T09:32:39.854Z</time></trkpt><trkpt lat="39.93617995065582" lon="9.478426126065234"><ele>870.5</ele><time>2026-04-29T09:32:40.854Z</time></trkpt><trkpt lat="39.93630190177956" lon="9.47837371742114"><ele>869.75</ele><time>2026-04-29T09:32:41.854Z</time></trkpt><trkpt lat="39.93641447499378" lon="9.478320980149839"><ele>869.0</ele><time>2026-04-29T09:32:42.854Z</time></trkpt><trkpt lat="39.936511207786985" lon="9.478279189286889"><ele>869.0000000000001</ele><time>2026-04-29T09:32:43.854Z</time></trkpt><trkpt lat="39.93660164894175" lon="9.47824352755956"><ele>869.0</ele><time>2026-04-29T09:32:44.854Z</time></trkpt><trkpt lat="39.93669340974176" lon="9.478228914331961"><ele>869.0</ele><time>2026-04-29T09:32:45.854Z</time></trkpt><trkpt lat="39.9367832970093" lon="9.478228964023675"><ele>869.0</ele><time>2026-04-29T09:32:46.854Z</time></trkpt><trkpt lat="39.936865314265454" lon="9.478225694760422"><ele>869.0000000000001</ele><time>2026-04-29T09:32:47.854Z</time></trkpt><trkpt lat="39.93693672712325" lon="9.47821046677079"><ele>869.0</ele><time>2026-04-29T09:32:48.854Z</time></trkpt><trkpt lat="39.93700015636547" lon="9.478165218066556"><ele>867.8333333333334</ele><time>2026-04-29T09:32:49.854Z</time></trkpt><trkpt lat="39.93704511069077" lon="9.478100886873879"><ele>866.6666666666667</ele><time>2026-04-29T09:32:50.854Z</time></trkpt><trkpt lat="39.93711603513259" lon="9.478007101145398"><ele>865.5</ele><time>2026-04-29T09:32:52.854Z</time></trkpt><trkpt lat="39.93717097199308" lon="9.477965172275292"><ele>864.3333333333333</ele><time>2026-04-29T09:33:02.854Z</time></trkpt><trkpt lat="39.93729003187223" lon="9.47792109857307"><ele>863.1666666666666</ele><time>2026-04-29T09:33:06.854Z</time></trkpt><trkpt lat="39.937376475618464" lon="9.477884798061277"><ele>862.0</ele><time>2026-04-29T09:33:07.854Z</time></trkpt><trkpt lat="39.93746909969912" lon="9.477858154804089"><ele>860.6</ele><time>2026-04-29T09:33:08.854Z</time></trkpt><trkpt lat="39.93755591899266" lon="9.477856088390945"><ele>859.2</ele><time>2026-04-29T09:33:09.854Z</time></trkpt><trkpt lat="39.937643820782746" lon="9.477885115948492"><ele>857.8</ele><time>2026-04-29T09:33:10.854Z</time></trkpt><trkpt lat="39.93772335598299" lon="9.477951341278043"><ele>856.4</ele><time>2026-04-29T09:33:11.854Z</time></trkpt><trkpt lat="39.93780981371807" lon="9.478055364458525"><ele>855.0</ele><time>2026-04-29T09:33:12.854Z</time></trkpt><trkpt lat="39.937897004466485" lon="9.478169722426125"><ele>855.0</ele><time>2026-04-29T09:33:13.854Z</time></trkpt><trkpt lat="39.93799844489531" lon="9.478315450100656"><ele>855.0</ele><time>2026-04-29T09:33:14.854Z</time></trkpt><trkpt lat="39.938112827746" lon="9.478474255305565"><ele>855.0</ele><time>2026-04-29T09:33:15.854Z</time></trkpt><trkpt lat="39.9382357539413" lon="9.478640483185039"><ele>855.0</ele><time>2026-04-29T09:33:16.854Z</time></trkpt><trkpt lat="39.93834856102668" lon="9.478806415544273"><ele>855.0</ele><time>2026-04-29T09:33:17.854Z</time></trkpt><trkpt lat="39.93845527293388" lon="9.478953872427187"><ele>855.0</ele><time>2026-04-29T09:33:18.853Z</time></trkpt><trkpt lat="39.93855729424677" lon="9.479100087208638"><ele>854.25</ele><time>2026-04-29T09:33:19.852Z</time></trkpt><trkpt lat="39.93865071928699" lon="9.479233551050989"><ele>853.5</ele><time>2026-04-29T09:33:20.852Z</time></trkpt><trkpt lat="39.93874689839499" lon="9.479372583510946"><ele>852.75</ele><time>2026-04-29T09:33:21.852Z</time></trkpt><trkpt lat="39.93884003375053" lon="9.479506706047257"><ele>852.0</ele><time>2026-04-29T09:33:22.852Z</time></trkpt><trkpt lat="39.93892876656746" lon="9.479629520572228"><ele>852.0</ele><time>2026-04-29T09:33:23.852Z</time></trkpt><trkpt lat="39.93901844190703" lon="9.47972733868729"><ele>852.0</ele><time>2026-04-29T09:33:24.852Z</time></trkpt><trkpt lat="39.93911831127369" lon="9.479800204479584"><ele>852.0</ele><time>2026-04-29T09:33:25.852Z</time></trkpt><trkpt lat="39.93921530825425" lon="9.479869983325724"><ele>852.0</ele><time>2026-04-29T09:33:26.852Z</time></trkpt><trkpt lat="39.9393295696491" lon="9.479889421502245"><ele>851.25</ele><time>2026-04-29T09:33:27.852Z</time></trkpt><trkpt lat="39.93943560096087" lon="9.479878171784964"><ele>850.5</ele><time>2026-04-29T09:33:28.852Z</time></trkpt><trkpt lat="39.939545104256105" lon="9.479825925067427"><ele>849.75</ele><time>2026-04-29T09:33:29.852Z</time></trkpt><trkpt lat="39.93963801110382" lon="9.479734339168495"><ele>849.0</ele><time>2026-04-29T09:33:30.851Z</time></trkpt><trkpt lat="39.939753576178525" lon="9.479670899712952"><ele>848.25</ele><time>2026-04-29T09:33:31.852Z</time></trkpt><trkpt lat="39.93987240497883" lon="9.479581784094407"><ele>847.5</ele><time>2026-04-29T09:33:32.852Z</time></trkpt><trkpt lat="39.939994792269715" lon="9.47948999976745"><ele>846.75</ele><time>2026-04-29T09:33:33.852Z</time></trkpt><trkpt lat="39.94011809579" lon="9.479397527909157"><ele>846.0</ele><time>2026-04-29T09:33:34.852Z</time></trkpt><trkpt lat="39.94024613827533" lon="9.479304546247745"><ele>845.6666666666667</ele><time>2026-04-29T09:33:35.852Z</time></trkpt><trkpt lat="39.94037309854462" lon="9.479211020250458"><ele>845.3333333333334</ele><time>2026-04-29T09:33:36.852Z</time></trkpt><trkpt lat="39.94050605596421" lon="9.479112200573391"><ele>845.0</ele><time>2026-04-29T09:33:37.852Z</time></trkpt><trkpt lat="39.94063675848642" lon="9.4789938183223"><ele>845.0</ele><time>2026-04-29T09:33:38.852Z</time></trkpt><trkpt lat="39.94077605067625" lon="9.478897195286901"><ele>845.0</ele><time>2026-04-29T09:33:39.852Z</time></trkpt><trkpt lat="39.94091908912158" lon="9.478804538556549"><ele>845.0</ele><time>2026-04-29T09:33:40.852Z</time></trkpt><trkpt lat="39.941065521815595" lon="9.478703809043756"><ele>843.6666666666667</ele><time>2026-04-29T09:33:41.852Z</time></trkpt><trkpt lat="39.941209723584805" lon="9.478595791295572"><ele>842.3333333333333</ele><time>2026-04-29T09:33:42.852Z</time></trkpt><trkpt lat="39.94135224762016" lon="9.478495126563427"><ele>841.0</ele><time>2026-04-29T09:33:43.852Z</time></trkpt><trkpt lat="39.94150289801517" lon="9.47838564436547"><ele>841.0</ele><time>2026-04-29T09:33:44.852Z</time></trkpt><trkpt lat="39.94164507620792" lon="9.478282132879421"><ele>841.0</ele><time>2026-04-29T09:33:45.852Z</time></trkpt><trkpt lat="39.94179252439469" lon="9.478171075292245"><ele>841.0</ele><time>2026-04-29T09:33:46.852Z</time></trkpt><trkpt lat="39.94194300995727" lon="9.478059721917038"><ele>840.6666666666666</ele><time>2026-04-29T09:33:47.852Z</time></trkpt><trkpt lat="39.94210209483226" lon="9.477945476823916"><ele>840.3333333333333</ele><time>2026-04-29T09:33:48.852Z</time></trkpt><trkpt lat="39.94226633196259" lon="9.477822065331654"><ele>840.0</ele><time>2026-04-29T09:33:49.852Z</time></trkpt><trkpt lat="39.94244489132026" lon="9.47768419801526"><ele>839.6666666666667</ele><time>2026-04-29T09:33:50.852Z</time></trkpt><trkpt lat="39.94262618157843" lon="9.477548459452587"><ele>839.3333333333334</ele><time>2026-04-29T09:33:51.852Z</time></trkpt><trkpt lat="39.942805375220445" lon="9.477413778100596"><ele>839.0</ele><time>2026-04-29T09:33:52.852Z</time></trkpt><trkpt lat="39.94298683676175" lon="9.477280218122672"><ele>839.0</ele><time>2026-04-29T09:33:53.852Z</time></trkpt><trkpt lat="39.94316398043235" lon="9.477147697318937"><ele>839.0</ele><time>2026-04-29T09:33:54.852Z</time></trkpt><trkpt lat="39.943342485876435" lon="9.477013091710164"><ele>839.0</ele><time>2026-04-29T09:33:55.852Z</time></trkpt><trkpt lat="39.94351913009356" lon="9.476880659815851"><ele>840.3333333333334</ele><time>2026-04-29T09:33:56.852Z</time></trkpt><trkpt lat="39.94369341746726" lon="9.476748993129888"><ele>841.6666666666667</ele><time>2026-04-29T09:33:57.852Z</time></trkpt><trkpt lat="39.94387467793986" lon="9.476637004822905"><ele>843.0</ele><time>2026-04-29T09:33:58.852Z</time></trkpt><trkpt lat="39.944041009140264" lon="9.476512338423115"><ele>843.0</ele><time>2026-04-29T09:33:59.852Z</time></trkpt><trkpt lat="39.94420808102716" lon="9.476388361329459"><ele>843.0</ele><time>2026-04-29T09:34:00.852Z</time></trkpt><trkpt lat="39.944371641668646" lon="9.476267245199198"><ele>843.0</ele><time>2026-04-29T09:34:01.852Z</time></trkpt><trkpt lat="39.944532762735186" lon="9.47614793555495"><ele>844.3333333333333</ele><time>2026-04-29T09:34:02.852Z</time></trkpt><trkpt lat="39.944690353665536" lon="9.476031239998118"><ele>845.6666666666666</ele><time>2026-04-29T09:34:03.852Z</time></trkpt><trkpt lat="39.94484951113525" lon="9.475913384413666"><ele>847.0</ele><time>2026-04-29T09:34:04.852Z</time></trkpt><trkpt lat="39.9450074674881" lon="9.475796418236149"><ele>846.6666666666666</ele><time>2026-04-29T09:34:05.852Z</time></trkpt><trkpt lat="39.94516596022828" lon="9.475674100027284"><ele>846.3333333333333</ele><time>2026-04-29T09:34:06.852Z</time></trkpt><trkpt lat="39.945322402861" lon="9.47555539311859"><ele>846.0</ele><time>2026-04-29T09:34:07.852Z</time></trkpt><trkpt lat="39.945469590458345" lon="9.475421489657224"><ele>846.6666666666667</ele><time>2026-04-29T09:34:08.852Z</time></trkpt><trkpt lat="39.94561901192616" lon="9.475311035450229"><ele>847.3333333333334</ele><time>2026-04-29T09:34:09.852Z</time></trkpt><trkpt lat="39.94576549082307" lon="9.47520576192857"><ele>848.0</ele><time>2026-04-29T09:34:10.852Z</time></trkpt><trkpt lat="39.945910501443365" lon="9.475082908097635"><ele>849.3333333333334</ele><time>2026-04-29T09:34:11.852Z</time></trkpt><trkpt lat="39.94606771743607" lon="9.474956173840003"><ele>850.6666666666667</ele><time>2026-04-29T09:34:12.852Z</time></trkpt><trkpt lat="39.94619920361835" lon="9.47485356030731"><ele>852.0</ele><time>2026-04-29T09:34:13.852Z</time></trkpt><trkpt lat="39.946333733057614" lon="9.474729414648174"><ele>852.0</ele><time>2026-04-29T09:34:14.852Z</time></trkpt><trkpt lat="39.94644476413949" lon="9.474614058922768"><ele>852.0</ele><time>2026-04-29T09:34:15.852Z</time></trkpt><trkpt lat="39.94655261049448" lon="9.474498617268418"><ele>852.0</ele><time>2026-04-29T09:34:16.852Z</time></trkpt><trkpt lat="39.946659906549655" lon="9.474372645447955"><ele>852.0</ele><time>2026-04-29T09:34:17.852Z</time></trkpt><trkpt lat="39.94679105006549" lon="9.474215611716893"><ele>853.0</ele><time>2026-04-29T09:34:18.852Z</time></trkpt><trkpt lat="39.94691018891129" lon="9.474059380078256"><ele>854.0</ele><time>2026-04-29T09:34:19.852Z</time></trkpt><trkpt lat="39.947032867048065" lon="9.473876355556131"><ele>855.0</ele><time>2026-04-29T09:34:20.852Z</time></trkpt><trkpt lat="39.94716235882633" lon="9.473676198784057"><ele>855.5</ele><time>2026-04-29T09:34:21.852Z</time></trkpt><trkpt lat="39.947440129927095" lon="9.473276096259555"><ele>856.0</ele><time>2026-04-29T09:34:22.852Z</time></trkpt><trkpt lat="39.947548936205656" lon="9.473078082706241"><ele>856.6666666666666</ele><time>2026-04-29T09:34:23.852Z</time></trkpt><trkpt lat="39.94765008782014" lon="9.472879668965156"><ele>857.3333333333333</ele><time>2026-04-29T09:34:24.852Z</time></trkpt><trkpt lat="39.9477496590788" lon="9.47267343350467"><ele>858.0</ele><time>2026-04-29T09:34:25.852Z</time></trkpt><trkpt lat="39.94784299982929" lon="9.472463522965262"><ele>858.0</ele><time>2026-04-29T09:34:26.852Z</time></trkpt><trkpt lat="39.94793304606807" lon="9.47224513414543"><ele>858.0</ele><time>2026-04-29T09:34:27.852Z</time></trkpt><trkpt lat="39.948020449496084" lon="9.472020777633668"><ele>858.0</ele><time>2026-04-29T09:34:28.852Z</time></trkpt><trkpt lat="39.94810842740783" lon="9.471791098326438"><ele>859.0</ele><time>2026-04-29T09:34:29.852Z</time></trkpt><trkpt lat="39.94819680812704" lon="9.471549257137386"><ele>860.0</ele><time>2026-04-29T09:34:30.852Z</time></trkpt><trkpt lat="39.94828727420195" lon="9.471303679757513"><ele>861.0</ele><time>2026-04-29T09:34:31.852Z</time></trkpt><trkpt lat="39.948379870287035" lon="9.471062318587384"><ele>860.6666666666667</ele><time>2026-04-29T09:34:32.852Z</time></trkpt><trkpt lat="39.94847528940752" lon="9.470817747482544"><ele>860.3333333333334</ele><time>2026-04-29T09:34:33.852Z</time></trkpt><trkpt lat="39.94856936059761" lon="9.470570318251136"><ele>860.0</ele><time>2026-04-29T09:34:34.852Z</time></trkpt><trkpt lat="39.94865622850276" lon="9.470322769941424"><ele>860.0</ele><time>2026-04-29T09:34:35.852Z</time></trkpt><trkpt lat="39.9487507492946" lon="9.47007520150816"><ele>860.0</ele><time>2026-04-29T09:34:36.852Z</time></trkpt><trkpt lat="39.94884358211259" lon="9.469826381475599"><ele>860.0</ele><time>2026-04-29T09:34:37.852Z</time></trkpt><trkpt lat="39.94893069007165" lon="9.469575074046833"><ele>859.6666666666667</ele><time>2026-04-29T09:34:38.852Z</time></trkpt><trkpt lat="39.94902768466173" lon="9.469326255906713"><ele>859.3333333333333</ele><time>2026-04-29T09:34:39.852Z</time></trkpt><trkpt lat="39.94912278518479" lon="9.469076401398317"><ele>859.0</ele><time>2026-04-29T09:34:40.852Z</time></trkpt><trkpt lat="39.94922225097629" lon="9.468822565226187"><ele>858.6666666666666</ele><time>2026-04-29T09:34:41.852Z</time></trkpt><trkpt lat="39.94931651693912" lon="9.468561421965477"><ele>858.3333333333333</ele><time>2026-04-29T09:34:42.852Z</time></trkpt><trkpt lat="39.949415576538314" lon="9.468301860736291"><ele>858.0</ele><time>2026-04-29T09:34:43.852Z</time></trkpt><trkpt lat="39.949511705239004" lon="9.46803770056649"><ele>857.0</ele><time>2026-04-29T09:34:44.852Z</time></trkpt><trkpt lat="39.94960478652847" lon="9.467767221394755"><ele>856.0</ele><time>2026-04-29T09:34:45.852Z</time></trkpt><trkpt lat="39.9497031280767" lon="9.467503797738102"><ele>856.0</ele><time>2026-04-29T09:34:46.852Z</time></trkpt><trkpt lat="39.949800150496216" lon="9.467239373916447"><ele>856.0</ele><time>2026-04-29T09:34:47.852Z</time></trkpt><trkpt lat="39.94990368953551" lon="9.466972959419767"><ele>853.5</ele><time>2026-04-29T09:34:48.852Z</time></trkpt><trkpt lat="39.95000647794735" lon="9.46670420585154"><ele>851.0</ele><time>2026-04-29T09:34:49.852Z</time></trkpt><trkpt lat="39.95010789801828" lon="9.46643214657326"><ele>853.0</ele><time>2026-04-29T09:34:50.852Z</time></trkpt><trkpt lat="39.950215492901656" lon="9.466158663858794"><ele>855.0</ele><time>2026-04-29T09:34:51.852Z</time></trkpt><trkpt lat="39.95031847045982" lon="9.465886264004043"><ele>855.0</ele><time>2026-04-29T09:34:52.852Z</time></trkpt><trkpt lat="39.950419329505486" lon="9.46561698801937"><ele>855.0</ele><time>2026-04-29T09:34:53.852Z</time></trkpt><trkpt lat="39.950519500772636" lon="9.46534865312821"><ele>850.5</ele><time>2026-04-29T09:34:54.852Z</time></trkpt><trkpt lat="39.9506141242495" lon="9.46508289291243"><ele>846.0</ele><time>2026-04-29T09:34:55.852Z</time></trkpt><trkpt lat="39.950718318209105" lon="9.46480865451217"><ele>842.5</ele><time>2026-04-29T09:34:56.852Z</time></trkpt><trkpt lat="39.950819757035575" lon="9.464539489917161"><ele>839.0</ele><time>2026-04-29T09:34:57.852Z</time></trkpt><trkpt lat="39.95091951269612" lon="9.464278503569508"><ele>839.0</ele><time>2026-04-29T09:34:58.852Z</time></trkpt><trkpt lat="39.95100728624336" lon="9.464032380342132"><ele>839.0</ele><time>2026-04-29T09:34:59.852Z</time></trkpt><trkpt lat="39.95110405005509" lon="9.463787894260978"><ele>839.0</ele><time>2026-04-29T09:35:00.852Z</time></trkpt><trkpt lat="39.951192940096185" lon="9.463540078011274"><ele>837.3333333333334</ele><time>2026-04-29T09:35:01.852Z</time></trkpt><trkpt lat="39.95128446651313" lon="9.463285038611069"><ele>835.6666666666667</ele><time>2026-04-29T09:35:02.852Z</time></trkpt><trkpt lat="39.951381437124255" lon="9.463030231164474"><ele>834.0</ele><time>2026-04-29T09:35:03.852Z</time></trkpt><trkpt lat="39.95147751134269" lon="9.462778371948392"><ele>832.6666666666667</ele><time>2026-04-29T09:35:04.852Z</time></trkpt><trkpt lat="39.95157020663284" lon="9.462533866673077"><ele>831.3333333333334</ele><time>2026-04-29T09:35:05.852Z</time></trkpt><trkpt lat="39.95166411746413" lon="9.462283335090584"><ele>830.0</ele><time>2026-04-29T09:35:06.852Z</time></trkpt><trkpt lat="39.95175609365471" lon="9.462031248298953"><ele>829.0</ele><time>2026-04-29T09:35:07.852Z</time></trkpt><trkpt lat="39.95184705797689" lon="9.461781177485292"><ele>828.0</ele><time>2026-04-29T09:35:08.852Z</time></trkpt><trkpt lat="39.951944881061344" lon="9.461534661887322"><ele>827.0</ele><time>2026-04-29T09:35:09.852Z</time></trkpt><trkpt lat="39.95203773547822" lon="9.461290483309142"><ele>825.6666666666667</ele><time>2026-04-29T09:35:10.852Z</time></trkpt><trkpt lat="39.952126628927" lon="9.461046233753006"><ele>824.3333333333333</ele><time>2026-04-29T09:35:11.852Z</time></trkpt><trkpt lat="39.95221651180193" lon="9.460803980274425"><ele>823.0</ele><time>2026-04-29T09:35:12.852Z</time></trkpt><trkpt lat="39.95230518559244" lon="9.460564687524233"><ele>823.3333333333333</ele><time>2026-04-29T09:35:13.852Z</time></trkpt><trkpt lat="39.9523947783485" lon="9.460324578407041"><ele>823.6666666666667</ele><time>2026-04-29T09:35:14.852Z</time></trkpt><trkpt lat="39.95249104613138" lon="9.460088082439402"><ele>824.0</ele><time>2026-04-29T09:35:15.852Z</time></trkpt><trkpt lat="39.95259268039745" lon="9.45985416623552"><ele>823.3333333333334</ele><time>2026-04-29T09:35:16.852Z</time></trkpt><trkpt lat="39.95269966745944" lon="9.459620618606866"><ele>822.6666666666667</ele><time>2026-04-29T09:35:17.852Z</time></trkpt><trkpt lat="39.952811813594025" lon="9.459391819275915"><ele>822.0</ele><time>2026-04-29T09:35:18.852Z</time></trkpt><trkpt lat="39.95293987462643" lon="9.459169619909714"><ele>822.0</ele><time>2026-04-29T09:35:19.852Z</time></trkpt><trkpt lat="39.953064984367195" lon="9.458949996997466"><ele>822.0</ele><time>2026-04-29T09:35:20.852Z</time></trkpt><trkpt lat="39.95319831305795" lon="9.458739719419807"><ele>822.0</ele><time>2026-04-29T09:35:21.852Z</time></trkpt><trkpt lat="39.953338522450224" lon="9.458541132100038"><ele>821.0</ele><time>2026-04-29T09:35:22.852Z</time></trkpt><trkpt lat="39.95348443100916" lon="9.458348040498825"><ele>820.0</ele><time>2026-04-29T09:35:23.852Z</time></trkpt><trkpt lat="39.95363807330189" lon="9.458167892875139"><ele>819.0</ele><time>2026-04-29T09:35:24.85Z</time></trkpt><trkpt lat="39.9537933238654" lon="9.45799112804422"><ele>819.0</ele><time>2026-04-29T09:35:25.85Z</time></trkpt><trkpt lat="39.95395392712328" lon="9.457822025097354"><ele>819.0</ele><time>2026-04-29T09:35:26.85Z</time></trkpt><trkpt lat="39.954098352641466" lon="9.457662338899958"><ele>819.0</ele><time>2026-04-29T09:35:27.85Z</time></trkpt><trkpt lat="39.954241804666715" lon="9.457508358832406"><ele>818.6666666666667</ele><time>2026-04-29T09:35:28.849Z</time></trkpt><trkpt lat="39.95436998137149" lon="9.457353178888603"><ele>818.3333333333334</ele><time>2026-04-29T09:35:29.849Z</time></trkpt><trkpt lat="39.95449168091928" lon="9.457220036224365"><ele>818.0</ele><time>2026-04-29T09:35:30.85Z</time></trkpt><trkpt lat="39.954618889693116" lon="9.457080033886774"><ele>818.6666666666667</ele><time>2026-04-29T09:35:31.849Z</time></trkpt><trkpt lat="39.954746868262795" lon="9.45695727032112"><ele>819.3333333333333</ele><time>2026-04-29T09:35:32.849Z</time></trkpt><trkpt lat="39.95487038540054" lon="9.456836311090557"><ele>820.0</ele><time>2026-04-29T09:35:33.85Z</time></trkpt><trkpt lat="39.954983351247925" lon="9.456713511081961"><ele>819.75</ele><time>2026-04-29T09:35:34.849Z</time></trkpt><trkpt lat="39.9550905274619" lon="9.45659612690794"><ele>819.5</ele><time>2026-04-29T09:35:35.849Z</time></trkpt><trkpt lat="39.95519367195809" lon="9.456483351793038"><ele>819.25</ele><time>2026-04-29T09:35:36.849Z</time></trkpt><trkpt lat="39.955290646871774" lon="9.45637649331487"><ele>819.0</ele><time>2026-04-29T09:35:37.849Z</time></trkpt><trkpt lat="39.955386881516375" lon="9.456276344355985"><ele>819.0</ele><time>2026-04-29T09:35:38.849Z</time></trkpt><trkpt lat="39.95548323338118" lon="9.456189169626823"><ele>819.0</ele><time>2026-04-29T09:35:39.849Z</time></trkpt><trkpt lat="39.95558811906915" lon="9.456107981391364"><ele>819.0</ele><time>2026-04-29T09:35:40.849Z</time></trkpt><trkpt lat="39.9557075019167" lon="9.45602849522491"><ele>819.0</ele><time>2026-04-29T09:35:41.849Z</time></trkpt><trkpt lat="39.955832323440944" lon="9.455976956149524"><ele>818.5</ele><time>2026-04-29T09:35:42.849Z</time></trkpt><trkpt lat="39.95596276715336" lon="9.455945039468913"><ele>818.0</ele><time>2026-04-29T09:35:43.849Z</time></trkpt><trkpt lat="39.956103720744316" lon="9.455927569290605"><ele>817.5</ele><time>2026-04-29T09:35:44.849Z</time></trkpt><trkpt lat="39.95624445332928" lon="9.455940928178391"><ele>817.0</ele><time>2026-04-29T09:35:45.849Z</time></trkpt><trkpt lat="39.95638053464512" lon="9.455976591029172"><ele>817.0</ele><time>2026-04-29T09:35:46.849Z</time></trkpt><trkpt lat="39.95651148401633" lon="9.456032946528945"><ele>817.0</ele><time>2026-04-29T09:35:47.849Z</time></trkpt><trkpt lat="39.956634395660174" lon="9.456100141131705"><ele>817.0</ele><time>2026-04-29T09:35:48.849Z</time></trkpt><trkpt lat="39.956753341773485" lon="9.45619448630282"><ele>817.0</ele><time>2026-04-29T09:35:49.849Z</time></trkpt><trkpt lat="39.956859972166605" lon="9.45629122420402"><ele>816.8</ele><time>2026-04-29T09:35:50.849Z</time></trkpt><trkpt lat="39.95694430867353" lon="9.456369633736518"><ele>816.6</ele><time>2026-04-29T09:35:51.849Z</time></trkpt><trkpt lat="39.9570197567224" lon="9.45643701070673"><ele>816.4</ele><time>2026-04-29T09:35:52.849Z</time></trkpt><trkpt lat="39.957070464677855" lon="9.456489300299951"><ele>816.1999999999999</ele><time>2026-04-29T09:35:53.849Z</time></trkpt><trkpt lat="39.95714789961678" lon="9.456563875732263"><ele>816.0</ele><time>2026-04-29T09:35:55.849Z</time></trkpt><trkpt lat="39.95723533345656" lon="9.456446375907891"><ele>816.0</ele><time>2026-04-29T09:35:57.849Z</time></trkpt><trkpt lat="39.957256298031375" lon="9.456341529308851"><ele>816.0</ele><time>2026-04-29T09:35:59.849Z</time></trkpt><trkpt lat="39.95723236545604" lon="9.456168889697938"><ele>816.0</ele><time>2026-04-29T09:36:01.849Z</time></trkpt><trkpt lat="39.95719244282912" lon="9.456015643179866"><ele>816.0</ele><time>2026-04-29T09:36:02.849Z</time></trkpt><trkpt lat="39.95716048083101" lon="9.455882273496208"><ele>816.0</ele><time>2026-04-29T09:36:03.849Z</time></trkpt><trkpt lat="39.95713317665972" lon="9.455733506728253"><ele>816.25</ele><time>2026-04-29T09:36:04.849Z</time></trkpt><trkpt lat="39.957108616462214" lon="9.455573165942553"><ele>816.5</ele><time>2026-04-29T09:36:05.849Z</time></trkpt><trkpt lat="39.95707848894717" lon="9.455407493598445"><ele>816.75</ele><time>2026-04-29T09:36:06.849Z</time></trkpt><trkpt lat="39.95705075723139" lon="9.455257206385362"><ele>817.0</ele><time>2026-04-29T09:36:07.849Z</time></trkpt><trkpt lat="39.957030761432875" lon="9.455136411818984"><ele>816.9999999999999</ele><time>2026-04-29T09:36:08.849Z</time></trkpt><trkpt lat="39.95701948022697" lon="9.455049893434726"><ele>817.0</ele><time>2026-04-29T09:36:09.849Z</time></trkpt><trkpt lat="39.957063029818926" lon="9.454968116301393"><ele>817.0</ele><time>2026-04-29T09:36:11.849Z</time></trkpt><trkpt lat="39.95710524476501" lon="9.454903313490275"><ele>817.0</ele><time>2026-04-29T09:36:13.849Z</time></trkpt><trkpt lat="39.95712058902692" lon="9.454803525589716"><ele>816.9999999999999</ele><time>2026-04-29T09:36:15.849Z</time></trkpt><trkpt lat="39.957110017477476" lon="9.454651343843407"><ele>817.0</ele><time>2026-04-29T09:36:17.849Z</time></trkpt><trkpt lat="39.95703347865435" lon="9.454555618042736"><ele>816.9999999999999</ele><time>2026-04-29T09:36:19.849Z</time></trkpt><trkpt lat="39.95693324445261" lon="9.454550153391947"><ele>817.0</ele><time>2026-04-29T09:36:21.849Z</time></trkpt><trkpt lat="39.95687453944709" lon="9.454581840076537"><ele>817.0</ele><time>2026-04-29T09:36:22.849Z</time></trkpt><trkpt lat="39.95681059992427" lon="9.454616855941854"><ele>817.0</ele><time>2026-04-29T09:36:23.849Z</time></trkpt><trkpt lat="39.95673196566755" lon="9.454647137969598"><ele>816.9999999999999</ele><time>2026-04-29T09:36:24.849Z</time></trkpt><trkpt lat="39.95666645590861" lon="9.454704574995754"><ele>817.0</ele><time>2026-04-29T09:36:25.849Z</time></trkpt><trkpt lat="39.95658653911259" lon="9.454617584653125"><ele>817.6</ele><time>2026-04-29T09:36:26.849Z</time></trkpt><trkpt lat="39.95651152969268" lon="9.45458065063877"><ele>818.2</ele><time>2026-04-29T09:36:27.849Z</time></trkpt><trkpt lat="39.956440495418875" lon="9.45449476848855"><ele>818.8</ele><time>2026-04-29T09:36:28.849Z</time></trkpt><trkpt lat="39.95634587754831" lon="9.454415991461891"><ele>819.4</ele><time>2026-04-29T09:36:29.849Z</time></trkpt><trkpt lat="39.95625208575495" lon="9.454323452685365"><ele>820.0</ele><time>2026-04-29T09:36:30.849Z</time></trkpt><trkpt lat="39.95614118056177" lon="9.454236568227426"><ele>820.0</ele><time>2026-04-29T09:36:31.849Z</time></trkpt><trkpt lat="39.956018057312605" lon="9.454142518234162"><ele>820.0</ele><time>2026-04-29T09:36:32.849Z</time></trkpt><trkpt lat="39.9559019165185" lon="9.454046076607144"><ele>820.0</ele><time>2026-04-29T09:36:33.849Z</time></trkpt><trkpt lat="39.95578640036003" lon="9.453949899342138"><ele>820.0</ele><time>2026-04-29T09:36:34.849Z</time></trkpt><trkpt lat="39.95566923632487" lon="9.453858840809497"><ele>820.25</ele><time>2026-04-29T09:36:35.849Z</time></trkpt><trkpt lat="39.95555697647534" lon="9.453763394187483"><ele>820.5</ele><time>2026-04-29T09:36:36.849Z</time></trkpt><trkpt lat="39.9554411297356" lon="9.453669641642382"><ele>820.75</ele><time>2026-04-29T09:36:37.849Z</time></trkpt><trkpt lat="39.955323782280225" lon="9.45357171976896"><ele>821.0</ele><time>2026-04-29T09:36:38.849Z</time></trkpt><trkpt lat="39.95521269710052" lon="9.453481323469003"><ele>821.0</ele><time>2026-04-29T09:36:39.849Z</time></trkpt><trkpt lat="39.95511085611621" lon="9.453403950106177"><ele>821.0</ele><time>2026-04-29T09:36:40.849Z</time></trkpt><trkpt lat="39.95502024072857" lon="9.453343064290772"><ele>821.0</ele><time>2026-04-29T09:36:41.849Z</time></trkpt><trkpt lat="39.95493438821266" lon="9.453301613009687"><ele>821.0</ele><time>2026-04-29T09:36:42.849Z</time></trkpt><trkpt lat="39.95484695468369" lon="9.453279210926597"><ele>821.0</ele><time>2026-04-29T09:36:43.849Z</time></trkpt><trkpt lat="39.954748276523745" lon="9.453266389262986"><ele>821.0</ele><time>2026-04-29T09:36:44.849Z</time></trkpt><trkpt lat="39.95464468094276" lon="9.45327990048424"><ele>821.0</ele><time>2026-04-29T09:36:45.849Z</time></trkpt><trkpt lat="39.95452750298438" lon="9.453324994583582"><ele>821.0</ele><time>2026-04-29T09:36:46.849Z</time></trkpt><trkpt lat="39.95440634649072" lon="9.45336524187407"><ele>821.0</ele><time>2026-04-29T09:36:47.849Z</time></trkpt><trkpt lat="39.95428389212326" lon="9.45340032893609"><ele>821.0</ele><time>2026-04-29T09:36:48.849Z</time></trkpt><trkpt lat="39.954159412988005" lon="9.453430803067194"><ele>821.0</ele><time>2026-04-29T09:36:49.849Z</time></trkpt><trkpt lat="39.9540470193136" lon="9.453442292175517"><ele>821.0</ele><time>2026-04-29T09:36:50.849Z</time></trkpt><trkpt lat="39.95393786778865" lon="9.45343168835385"><ele>821.0</ele><time>2026-04-29T09:36:51.849Z</time></trkpt><trkpt lat="39.95382830265493" lon="9.45339744623638"><ele>821.0</ele><time>2026-04-29T09:36:52.849Z</time></trkpt><trkpt lat="39.953724795655305" lon="9.453310127717984"><ele>821.0</ele><time>2026-04-29T09:36:53.849Z</time></trkpt><trkpt lat="39.95360664215371" lon="9.45324670424956"><ele>821.0</ele><time>2026-04-29T09:36:54.849Z</time></trkpt><trkpt lat="39.95348318733158" lon="9.453154305925073"><ele>821.0</ele><time>2026-04-29T09:36:55.849Z</time></trkpt><trkpt lat="39.95334957812355" lon="9.453066730587794"><ele>821.0</ele><time>2026-04-29T09:36:56.849Z</time></trkpt><trkpt lat="39.953214636137275" lon="9.452976927674772"><ele>821.0</ele><time>2026-04-29T09:36:57.849Z</time></trkpt><trkpt lat="39.95309098787151" lon="9.452895818032239"><ele>821.0</ele><time>2026-04-29T09:36:58.849Z</time></trkpt><trkpt lat="39.95297815435705" lon="9.452811624288781"><ele>821.0</ele><time>2026-04-29T09:36:59.849Z</time></trkpt><trkpt lat="39.95288742807248" lon="9.452725869692493"><ele>821.0</ele><time>2026-04-29T09:37:00.849Z</time></trkpt><trkpt lat="39.95283142415777" lon="9.45264361673933"><ele>821.0</ele><time>2026-04-29T09:37:01.849Z</time></trkpt><trkpt lat="39.952805106748116" lon="9.45253557948759"><ele>821.0</ele><time>2026-04-29T09:37:02.849Z</time></trkpt><trkpt lat="39.95280447773132" lon="9.45240761134487"><ele>821.0</ele><time>2026-04-29T09:37:03.849Z</time></trkpt><trkpt lat="39.95283985556548" lon="9.452293354610037"><ele>821.0</ele><time>2026-04-29T09:37:04.849Z</time></trkpt><trkpt lat="39.95291589806702" lon="9.45218660366064"><ele>820.4</ele><time>2026-04-29T09:37:05.849Z</time></trkpt><trkpt lat="39.952995858629805" lon="9.452073145096762"><ele>819.8</ele><time>2026-04-29T09:37:06.849Z</time></trkpt><trkpt lat="39.95307507689561" lon="9.45193406202211"><ele>819.1999999999999</ele><time>2026-04-29T09:37:07.849Z</time></trkpt><trkpt lat="39.953145738831154" lon="9.451817461090899"><ele>818.5999999999999</ele><time>2026-04-29T09:37:08.849Z</time></trkpt><trkpt lat="39.95318271104518" lon="9.451721727903378"><ele>818.0</ele><time>2026-04-29T09:37:09.849Z</time></trkpt><trkpt lat="39.953215066097165" lon="9.451561739708515"><ele>818.0</ele><time>2026-04-29T09:37:10.849Z</time></trkpt><trkpt lat="39.953241251880144" lon="9.451419712557925"><ele>818.0</ele><time>2026-04-29T09:37:11.849Z</time></trkpt><trkpt lat="39.95323687145788" lon="9.451269879820055"><ele>818.0</ele><time>2026-04-29T09:37:12.849Z</time></trkpt><trkpt lat="39.95320948688574" lon="9.451115520722823"><ele>818.0</ele><time>2026-04-29T09:37:13.849Z</time></trkpt><trkpt lat="39.95315570007336" lon="9.450963079361053"><ele>817.75</ele><time>2026-04-29T09:37:14.849Z</time></trkpt><trkpt lat="39.95308325026227" lon="9.450814826242448"><ele>817.5</ele><time>2026-04-29T09:37:15.849Z</time></trkpt><trkpt lat="39.952991783647136" lon="9.450672130699013"><ele>817.25</ele><time>2026-04-29T09:37:16.849Z</time></trkpt><trkpt lat="39.952890873991954" lon="9.450518976875706"><ele>817.0</ele><time>2026-04-29T09:37:17.849Z</time></trkpt><trkpt lat="39.95278622972297" lon="9.450353002413136"><ele>817.0</ele><time>2026-04-29T09:37:18.849Z</time></trkpt><trkpt lat="39.9526837329884" lon="9.45018354897007"><ele>817.0</ele><time>2026-04-29T09:37:19.849Z</time></trkpt><trkpt lat="39.95258633742423" lon="9.45002527874549"><ele>817.0</ele><time>2026-04-29T09:37:20.849Z</time></trkpt><trkpt lat="39.95248635581408" lon="9.449864290807028"><ele>816.5</ele><time>2026-04-29T09:37:21.849Z</time></trkpt><trkpt lat="39.952384807817445" lon="9.449704511708848"><ele>816.0</ele><time>2026-04-29T09:37:22.849Z</time></trkpt><trkpt lat="39.95229086396658" lon="9.449557001967468"><ele>815.5</ele><time>2026-04-29T09:37:23.849Z</time></trkpt><trkpt lat="39.952220203745476" lon="9.449417503349274"><ele>815.0</ele><time>2026-04-29T09:37:24.849Z</time></trkpt><trkpt lat="39.952182380584674" lon="9.449291867746366"><ele>815.0</ele><time>2026-04-29T09:37:25.849Z</time></trkpt><trkpt lat="39.952190742379344" lon="9.449171336029044"><ele>815.0</ele><time>2026-04-29T09:37:26.849Z</time></trkpt><trkpt lat="39.952211329801244" lon="9.44904262473743"><ele>815.0</ele><time>2026-04-29T09:37:27.849Z</time></trkpt><trkpt lat="39.952270198988636" lon="9.448933057526231"><ele>815.0</ele><time>2026-04-29T09:37:28.849Z</time></trkpt><trkpt lat="39.95234350094562" lon="9.448835174637292"><ele>815.0</ele><time>2026-04-29T09:37:29.849Z</time></trkpt><trkpt lat="39.95243294890389" lon="9.448707651404805"><ele>814.5</ele><time>2026-04-29T09:37:30.848Z</time></trkpt><trkpt lat="39.952520253612754" lon="9.448576008011322"><ele>814.0</ele><time>2026-04-29T09:37:31.847Z</time></trkpt><trkpt lat="39.9525925464341" lon="9.448417439512042"><ele>813.5</ele><time>2026-04-29T09:37:32.847Z</time></trkpt><trkpt lat="39.95263654823918" lon="9.448253063683728"><ele>813.0</ele><time>2026-04-29T09:37:33.847Z</time></trkpt><trkpt lat="39.95266559877033" lon="9.448078997802417"><ele>815.25</ele><time>2026-04-29T09:37:34.847Z</time></trkpt><trkpt lat="39.95268557517099" lon="9.447899428315866"><ele>817.5</ele><time>2026-04-29T09:37:35.847Z</time></trkpt><trkpt lat="39.95268832216216" lon="9.447714394829402"><ele>819.75</ele><time>2026-04-29T09:37:36.847Z</time></trkpt><trkpt lat="39.95268914812483" lon="9.44754916960759"><ele>822.0</ele><time>2026-04-29T09:37:37.848Z</time></trkpt><trkpt lat="39.95269253368437" lon="9.447398021024785"><ele>822.0</ele><time>2026-04-29T09:37:38.848Z</time></trkpt><trkpt lat="39.95268221943388" lon="9.44725359663495"><ele>822.0</ele><time>2026-04-29T09:37:39.848Z</time></trkpt><trkpt lat="39.95264376261474" lon="9.447130312292762"><ele>822.0</ele><time>2026-04-29T09:37:40.847Z</time></trkpt><trkpt lat="39.952585010658545" lon="9.447032252000815"><ele>822.0</ele><time>2026-04-29T09:37:41.847Z</time></trkpt><trkpt lat="39.95250146422285" lon="9.446941873110653"><ele>822.0</ele><time>2026-04-29T09:37:42.847Z</time></trkpt><trkpt lat="39.95240341543449" lon="9.44685885872789"><ele>820.75</ele><time>2026-04-29T09:37:43.848Z</time></trkpt><trkpt lat="39.95229039708597" lon="9.446792346458853"><ele>819.5</ele><time>2026-04-29T09:37:44.848Z</time></trkpt><trkpt lat="39.9521567675325" lon="9.446718297520786"><ele>818.25</ele><time>2026-04-29T09:37:45.848Z</time></trkpt><trkpt lat="39.95203785080433" lon="9.446636183837176"><ele>817.0</ele><time>2026-04-29T09:37:46.848Z</time></trkpt><trkpt lat="39.951923552305736" lon="9.446571324987632"><ele>817.0</ele><time>2026-04-29T09:37:47.848Z</time></trkpt><trkpt lat="39.95182268898314" lon="9.446508207881212"><ele>817.0</ele><time>2026-04-29T09:37:48.848Z</time></trkpt><trkpt lat="39.95174461884268" lon="9.446422564991481"><ele>817.0</ele><time>2026-04-29T09:37:49.848Z</time></trkpt><trkpt lat="39.951702169219814" lon="9.446313982916934"><ele>817.0</ele><time>2026-04-29T09:37:50.848Z</time></trkpt><trkpt lat="39.95169168629135" lon="9.446195690912012"><ele>817.0</ele><time>2026-04-29T09:37:51.848Z</time></trkpt><trkpt lat="39.951706039351" lon="9.446058668034569"><ele>820.0</ele><time>2026-04-29T09:37:52.848Z</time></trkpt><trkpt lat="39.95173669768093" lon="9.445923098287803"><ele>823.0</ele><time>2026-04-29T09:37:53.848Z</time></trkpt><trkpt lat="39.951771273790136" lon="9.445786117976613"><ele>826.0</ele><time>2026-04-29T09:37:54.848Z</time></trkpt><trkpt lat="39.95180292523661" lon="9.445645847192305"><ele>829.0</ele><time>2026-04-29T09:37:55.848Z</time></trkpt><trkpt lat="39.95180138397113" lon="9.445488562803057"><ele>827.8000000000001</ele><time>2026-04-29T09:37:56.848Z</time></trkpt><trkpt lat="39.95181705619553" lon="9.445343087675841"><ele>826.6</ele><time>2026-04-29T09:37:57.848Z</time></trkpt><trkpt lat="39.951839128426634" lon="9.44521568337401"><ele>825.4</ele><time>2026-04-29T09:37:58.848Z</time></trkpt><trkpt lat="39.95186251982499" lon="9.445113372471434"><ele>824.2</ele><time>2026-04-29T09:37:59.848Z</time></trkpt><trkpt lat="39.95190869176333" lon="9.445043840764983"><ele>823.0</ele><time>2026-04-29T09:38:00.848Z</time></trkpt><trkpt lat="39.95198129966634" lon="9.444955452532339"><ele>823.0</ele><time>2026-04-29T09:38:01.848Z</time></trkpt><trkpt lat="39.952068997810066" lon="9.444868706783952"><ele>823.0</ele><time>2026-04-29T09:38:02.848Z</time></trkpt><trkpt lat="39.95215102123005" lon="9.444784056978818"><ele>823.0</ele><time>2026-04-29T09:38:03.848Z</time></trkpt><trkpt lat="39.95224796890221" lon="9.444701122344178"><ele>823.0</ele><time>2026-04-29T09:38:04.848Z</time></trkpt><trkpt lat="39.952343814993824" lon="9.444604290857255"><ele>823.25</ele><time>2026-04-29T09:38:05.848Z</time></trkpt><trkpt lat="39.952433040220754" lon="9.444508713892205"><ele>823.5</ele><time>2026-04-29T09:38:06.848Z</time></trkpt><trkpt lat="39.952525631141874" lon="9.444424665741366"><ele>823.75</ele><time>2026-04-29T09:38:07.848Z</time></trkpt><trkpt lat="39.95262404601796" lon="9.444328419028853"><ele>824.0</ele><time>2026-04-29T09:38:08.848Z</time></trkpt><trkpt lat="39.952726986493" lon="9.444241249066186"><ele>824.0</ele><time>2026-04-29T09:38:09.848Z</time></trkpt><trkpt lat="39.95282129166226" lon="9.444145604682342"><ele>824.0</ele><time>2026-04-29T09:38:10.848Z</time></trkpt><trkpt lat="39.95291828420431" lon="9.44403895908017"><ele>824.0</ele><time>2026-04-29T09:38:11.848Z</time></trkpt><trkpt lat="39.95301187708766" lon="9.443917652507091"><ele>824.0</ele><time>2026-04-29T09:38:12.848Z</time></trkpt><trkpt lat="39.953094085587445" lon="9.443786614110397"><ele>824.0</ele><time>2026-04-29T09:38:13.848Z</time></trkpt><trkpt lat="39.95317634262579" lon="9.443657277170802"><ele>824.0</ele><time>2026-04-29T09:38:14.848Z</time></trkpt><trkpt lat="39.95325820387806" lon="9.443513686389828"><ele>824.0</ele><time>2026-04-29T09:38:15.848Z</time></trkpt><trkpt lat="39.95334035372968" lon="9.44337694130532"><ele>824.0</ele><time>2026-04-29T09:38:16.848Z</time></trkpt><trkpt lat="39.95341793731712" lon="9.44324446474906"><ele>824.0</ele><time>2026-04-29T09:38:17.848Z</time></trkpt><trkpt lat="39.953503005606414" lon="9.443134593788974"><ele>824.0</ele><time>2026-04-29T09:38:18.848Z</time></trkpt><trkpt lat="39.95360200735645" lon="9.443052470102907"><ele>824.0</ele><time>2026-04-29T09:38:19.848Z</time></trkpt><trkpt lat="39.953714828738846" lon="9.44299447100281"><ele>824.0</ele><time>2026-04-29T09:38:20.848Z</time></trkpt><trkpt lat="39.9538271137099" lon="9.442956568435916"><ele>822.0</ele><time>2026-04-29T09:38:21.848Z</time></trkpt><trkpt lat="39.95394075434334" lon="9.442915292651872"><ele>820.0</ele><time>2026-04-29T09:38:22.848Z</time></trkpt><trkpt lat="39.954063015930274" lon="9.442900456368594"><ele>818.0</ele><time>2026-04-29T09:38:23.848Z</time></trkpt><trkpt lat="39.95419042898633" lon="9.442892778132546"><ele>816.0</ele><time>2026-04-29T09:38:24.848Z</time></trkpt><trkpt lat="39.954315447037885" lon="9.442877108795876"><ele>816.0</ele><time>2026-04-29T09:38:25.848Z</time></trkpt><trkpt lat="39.954444489686736" lon="9.442853408072235"><ele>816.0</ele><time>2026-04-29T09:38:26.848Z</time></trkpt><trkpt lat="39.954577166090885" lon="9.44282296447037"><ele>816.0</ele><time>2026-04-29T09:38:27.848Z</time></trkpt><trkpt lat="39.95471396536544" lon="9.442797320995417"><ele>816.0</ele><time>2026-04-29T09:38:28.848Z</time></trkpt><trkpt lat="39.95485968367961" lon="9.442776626701571"><ele>816.0</ele><time>2026-04-29T09:38:29.848Z</time></trkpt><trkpt lat="39.955000874589665" lon="9.44276545487388"><ele>816.0</ele><time>2026-04-29T09:38:30.848Z</time></trkpt><trkpt lat="39.95514357410781" lon="9.44278613746683"><ele>816.0</ele><time>2026-04-29T09:38:31.848Z</time></trkpt><trkpt lat="39.95526891651169" lon="9.442831629358635"><ele>816.0</ele><time>2026-04-29T09:38:32.848Z</time></trkpt><trkpt lat="39.955376844013415" lon="9.44288253020934"><ele>817.5999999999999</ele><time>2026-04-29T09:38:33.848Z</time></trkpt><trkpt lat="39.95547259797411" lon="9.442908224364935"><ele>819.2</ele><time>2026-04-29T09:38:34.848Z</time></trkpt><trkpt lat="39.95556916076006" lon="9.442890841739517"><ele>820.8</ele><time>2026-04-29T09:38:35.848Z</time></trkpt><trkpt lat="39.955640535153734" lon="9.442835478613498"><ele>822.4000000000001</ele><time>2026-04-29T09:38:36.848Z</time></trkpt><trkpt lat="39.95571022314497" lon="9.442770105165367"><ele>824.0</ele><time>2026-04-29T09:38:37.848Z</time></trkpt><trkpt lat="39.9557810226336" lon="9.442683342104928"><ele>824.0</ele><time>2026-04-29T09:38:38.848Z</time></trkpt><trkpt lat="39.95581399199805" lon="9.442545823800208"><ele>824.0</ele><time>2026-04-29T09:38:39.848Z</time></trkpt><trkpt lat="39.95581721065" lon="9.442421921377436"><ele>824.0</ele><time>2026-04-29T09:38:40.848Z</time></trkpt><trkpt lat="39.95581728608225" lon="9.442267385983882"><ele>824.0</ele><time>2026-04-29T09:38:41.848Z</time></trkpt><trkpt lat="39.95580448900451" lon="9.442109201363634"><ele>824.0</ele><time>2026-04-29T09:38:42.848Z</time></trkpt><trkpt lat="39.95580287710774" lon="9.441958027032948"><ele>823.0</ele><time>2026-04-29T09:38:43.847Z</time></trkpt><trkpt lat="39.95580403135292" lon="9.4418125579179"><ele>822.0</ele><time>2026-04-29T09:38:44.847Z</time></trkpt><trkpt lat="39.95580542020012" lon="9.441638574796244"><ele>821.0</ele><time>2026-04-29T09:38:45.847Z</time></trkpt><trkpt lat="39.95583223619117" lon="9.441467855393576"><ele>820.0</ele><time>2026-04-29T09:38:46.847Z</time></trkpt><trkpt lat="39.95585499630718" lon="9.441299180101755"><ele>819.75</ele><time>2026-04-29T09:38:47.847Z</time></trkpt><trkpt lat="39.95589446313158" lon="9.441162732487424"><ele>819.5</ele><time>2026-04-29T09:38:48.847Z</time></trkpt><trkpt lat="39.95596544928925" lon="9.441017032789583"><ele>819.25</ele><time>2026-04-29T09:38:49.847Z</time></trkpt><trkpt lat="39.956061049961" lon="9.440884241132103"><ele>819.0</ele><time>2026-04-29T09:38:50.847Z</time></trkpt><trkpt lat="39.95615573507225" lon="9.440737195474917"><ele>819.0</ele><time>2026-04-29T09:38:51.847Z</time></trkpt><trkpt lat="39.95625207197765" lon="9.440591471826405"><ele>819.0</ele><time>2026-04-29T09:38:52.847Z</time></trkpt><trkpt lat="39.956354051260696" lon="9.440437765022551"><ele>819.0</ele><time>2026-04-29T09:38:53.847Z</time></trkpt><trkpt lat="39.956461039337434" lon="9.440284214769926"><ele>820.3333333333333</ele><time>2026-04-29T09:38:54.847Z</time></trkpt><trkpt lat="39.95656547042949" lon="9.440116792518996"><ele>821.6666666666666</ele><time>2026-04-29T09:38:55.847Z</time></trkpt><trkpt lat="39.956669668694225" lon="9.439958463476787"><ele>823.0</ele><time>2026-04-29T09:38:56.847Z</time></trkpt><trkpt lat="39.95676792388407" lon="9.439794380872645"><ele>820.0</ele><time>2026-04-29T09:38:57.847Z</time></trkpt><trkpt lat="39.95686598962213" lon="9.439616337221242"><ele>817.0</ele><time>2026-04-29T09:38:58.847Z</time></trkpt><trkpt lat="39.95696325644051" lon="9.439443284609412"><ele>814.0</ele><time>2026-04-29T09:38:59.847Z</time></trkpt><trkpt lat="39.95706091796677" lon="9.439274563721613"><ele>814.0</ele><time>2026-04-29T09:39:00.847Z</time></trkpt><trkpt lat="39.95716305458815" lon="9.439111185749955"><ele>814.0</ele><time>2026-04-29T09:39:01.847Z</time></trkpt><trkpt lat="39.95725911400465" lon="9.438945216521219"><ele>814.0</ele><time>2026-04-29T09:39:02.847Z</time></trkpt><trkpt lat="39.95734672771989" lon="9.438781167157458"><ele>813.5</ele><time>2026-04-29T09:39:03.847Z</time></trkpt><trkpt lat="39.95743734888216" lon="9.438620900391175"><ele>813.0</ele><time>2026-04-29T09:39:04.847Z</time></trkpt><trkpt lat="39.957533213603796" lon="9.438468882274396"><ele>812.5</ele><time>2026-04-29T09:39:05.847Z</time></trkpt><trkpt lat="39.95763490522163" lon="9.438333557395785"><ele>812.0</ele><time>2026-04-29T09:39:06.847Z</time></trkpt><trkpt lat="39.95774511979343" lon="9.438211405766493"><ele>812.0</ele><time>2026-04-29T09:39:07.847Z</time></trkpt><trkpt lat="39.95786000621013" lon="9.438098302677162"><ele>812.0</ele><time>2026-04-29T09:39:08.847Z</time></trkpt><trkpt lat="39.95797156570588" lon="9.437990183652245"><ele>812.0</ele><time>2026-04-29T09:39:09.847Z</time></trkpt><trkpt lat="39.95808435247579" lon="9.437875284375824"><ele>812.0</ele><time>2026-04-29T09:39:10.847Z</time></trkpt><trkpt lat="39.95820933702147" lon="9.437748993402794"><ele>812.0</ele><time>2026-04-29T09:39:11.847Z</time></trkpt><trkpt lat="39.95832911284695" lon="9.437633541211678"><ele>812.0</ele><time>2026-04-29T09:39:12.847Z</time></trkpt><trkpt lat="39.958448377770075" lon="9.437515803850124"><ele>812.0</ele><time>2026-04-29T09:39:13.847Z</time></trkpt><trkpt lat="39.958557305049155" lon="9.437398981471453"><ele>812.0</ele><time>2026-04-29T09:39:14.847Z</time></trkpt><trkpt lat="39.95865774663533" lon="9.437290104230504"><ele>812.0</ele><time>2026-04-29T09:39:15.847Z</time></trkpt><trkpt lat="39.95873352648282" lon="9.437176477064469"><ele>812.0</ele><time>2026-04-29T09:39:16.847Z</time></trkpt><trkpt lat="39.95879192303384" lon="9.437061985499176"><ele>812.0</ele><time>2026-04-29T09:39:17.847Z</time></trkpt><trkpt lat="39.95882454118304" lon="9.436934250881944"><ele>812.0</ele><time>2026-04-29T09:39:18.847Z</time></trkpt><trkpt lat="39.958840841164715" lon="9.43679073004642"><ele>812.0</ele><time>2026-04-29T09:39:19.847Z</time></trkpt><trkpt lat="39.95882891584587" lon="9.436659929497166"><ele>812.2</ele><time>2026-04-29T09:39:20.847Z</time></trkpt><trkpt lat="39.95879859205404" lon="9.436522339097193"><ele>812.4000000000001</ele><time>2026-04-29T09:39:21.847Z</time></trkpt><trkpt lat="39.958756673018" lon="9.436403958993306"><ele>812.5999999999999</ele><time>2026-04-29T09:39:22.847Z</time></trkpt><trkpt lat="39.95870442674543" lon="9.436308870192105"><ele>812.8</ele><time>2026-04-29T09:39:23.847Z</time></trkpt><trkpt lat="39.95861343656551" lon="9.436231623732267"><ele>813.0</ele><time>2026-04-29T09:39:24.847Z</time></trkpt><trkpt lat="39.95851273717807" lon="9.436195974745683"><ele>813.0</ele><time>2026-04-29T09:39:25.847Z</time></trkpt><trkpt lat="39.958399582961434" lon="9.436204382733296"><ele>813.0</ele><time>2026-04-29T09:39:26.847Z</time></trkpt><trkpt lat="39.95828698030842" lon="9.436205005681307"><ele>813.0</ele><time>2026-04-29T09:39:27.847Z</time></trkpt><trkpt lat="39.95814679820697" lon="9.436208250136344"><ele>813.0</ele><time>2026-04-29T09:39:28.847Z</time></trkpt><trkpt lat="39.95801133809308" lon="9.436204458331375"><ele>812.4</ele><time>2026-04-29T09:39:29.847Z</time></trkpt><trkpt lat="39.957871569971296" lon="9.436201562568826"><ele>811.8</ele><time>2026-04-29T09:39:30.847Z</time></trkpt><trkpt lat="39.957750527132845" lon="9.436154325166697"><ele>811.2</ele><time>2026-04-29T09:39:31.847Z</time></trkpt><trkpt lat="39.95766840578682" lon="9.436122645717303"><ele>810.6</ele><time>2026-04-29T09:39:32.847Z</time></trkpt><trkpt lat="39.9575871414114" lon="9.436082456739534"><ele>810.0</ele><time>2026-04-29T09:39:33.847Z</time></trkpt><trkpt lat="39.95753093044453" lon="9.436001024346059"><ele>810.6</ele><time>2026-04-29T09:39:34.847Z</time></trkpt><trkpt lat="39.95749542120127" lon="9.435895791294822"><ele>811.2</ele><time>2026-04-29T09:39:35.847Z</time></trkpt><trkpt lat="39.95747791000643" lon="9.435767977396605"><ele>811.8</ele><time>2026-04-29T09:39:36.845Z</time></trkpt><trkpt lat="39.9574902353681" lon="9.435627331832787"><ele>812.4</ele><time>2026-04-29T09:39:37.845Z</time></trkpt><trkpt lat="39.9575107531257" lon="9.435495848038041"><ele>813.0</ele><time>2026-04-29T09:39:38.845Z</time></trkpt><trkpt lat="39.95756268696945" lon="9.435371387511331"><ele>813.0</ele><time>2026-04-29T09:39:39.845Z</time></trkpt><trkpt lat="39.957619986319735" lon="9.435248107629862"><ele>813.0</ele><time>2026-04-29T09:39:40.845Z</time></trkpt><trkpt lat="39.957704584333385" lon="9.4351030548499"><ele>813.0</ele><time>2026-04-29T09:39:41.845Z</time></trkpt><trkpt lat="39.95780261559732" lon="9.434962353264279"><ele>813.0</ele><time>2026-04-29T09:39:42.845Z</time></trkpt><trkpt lat="39.95790745949999" lon="9.43482174436052"><ele>813.0</ele><time>2026-04-29T09:39:43.845Z</time></trkpt><trkpt lat="39.9580184558777" lon="9.434679992244028"><ele>813.0</ele><time>2026-04-29T09:39:44.845Z</time></trkpt><trkpt lat="39.95814000918823" lon="9.434528803528346"><ele>813.0</ele><time>2026-04-29T09:39:45.846Z</time></trkpt><trkpt lat="39.95825591848079" lon="9.43437476814552"><ele>813.0</ele><time>2026-04-29T09:39:46.845Z</time></trkpt><trkpt lat="39.958366922997804" lon="9.434257944060338"><ele>813.0</ele><time>2026-04-29T09:39:47.845Z</time></trkpt><trkpt lat="39.95847859438886" lon="9.434145581371085"><ele>813.0</ele><time>2026-04-29T09:39:48.845Z</time></trkpt><trkpt lat="39.95860692334249" lon="9.434040631279041"><ele>813.0</ele><time>2026-04-29T09:39:49.845Z</time></trkpt><trkpt lat="39.95875130980463" lon="9.433946084645745"><ele>813.0</ele><time>2026-04-29T09:39:50.845Z</time></trkpt><trkpt lat="39.95889213321077" lon="9.433836883926187"><ele>813.0</ele><time>2026-04-29T09:39:51.845Z</time></trkpt><trkpt lat="39.95902969919992" lon="9.433741513084781"><ele>813.0</ele><time>2026-04-29T09:39:52.845Z</time></trkpt><trkpt lat="39.959165885821044" lon="9.433649296008147"><ele>812.0</ele><time>2026-04-29T09:39:53.845Z</time></trkpt><trkpt lat="39.95928553890575" lon="9.433542703606571"><ele>811.0</ele><time>2026-04-29T09:39:54.845Z</time></trkpt><trkpt lat="39.95939672654557" lon="9.433423111202499"><ele>810.0</ele><time>2026-04-29T09:39:55.845Z</time></trkpt><trkpt lat="39.959497986114435" lon="9.433279177067428"><ele>809.0</ele><time>2026-04-29T09:39:56.845Z</time></trkpt><trkpt lat="39.9595978451922" lon="9.433122070918397"><ele>809.0</ele><time>2026-04-29T09:39:57.845Z</time></trkpt><trkpt lat="39.95970007250383" lon="9.43299097754528"><ele>809.0</ele><time>2026-04-29T09:39:58.845Z</time></trkpt><trkpt lat="39.95979015345833" lon="9.432901075943677"><ele>809.0</ele><time>2026-04-29T09:39:59.845Z</time></trkpt><trkpt lat="39.959891242180255" lon="9.43282985328832"><ele>809.0</ele><time>2026-04-29T09:40:00.845Z</time></trkpt><trkpt lat="39.960008024767376" lon="9.432788912947357"><ele>808.5</ele><time>2026-04-29T09:40:01.845Z</time></trkpt><trkpt lat="39.96013499007812" lon="9.432764623833034"><ele>808.0</ele><time>2026-04-29T09:40:02.845Z</time></trkpt><trkpt lat="39.9602660448572" lon="9.432752373784293"><ele>807.5</ele><time>2026-04-29T09:40:03.845Z</time></trkpt><trkpt lat="39.96038464617119" lon="9.432722694665198"><ele>807.0</ele><time>2026-04-29T09:40:04.845Z</time></trkpt><trkpt lat="39.960490483973665" lon="9.432674157794427"><ele>807.0</ele><time>2026-04-29T09:40:05.845Z</time></trkpt><trkpt lat="39.960580301516686" lon="9.432589437425346"><ele>807.0</ele><time>2026-04-29T09:40:06.845Z</time></trkpt><trkpt lat="39.960646703758314" lon="9.432485632817349"><ele>807.0</ele><time>2026-04-29T09:40:07.845Z</time></trkpt><trkpt lat="39.96069788086118" lon="9.432364281790026"><ele>807.0</ele><time>2026-04-29T09:40:08.845Z</time></trkpt><trkpt lat="39.96075237283236" lon="9.432232922129248"><ele>807.0</ele><time>2026-04-29T09:40:09.845Z</time></trkpt><trkpt lat="39.96080144289572" lon="9.432101541750114"><ele>805.75</ele><time>2026-04-29T09:40:10.845Z</time></trkpt><trkpt lat="39.96084215486651" lon="9.431972210081657"><ele>804.5</ele><time>2026-04-29T09:40:11.845Z</time></trkpt><trkpt lat="39.96089226230845" lon="9.43183558016604"><ele>803.25</ele><time>2026-04-29T09:40:12.845Z</time></trkpt><trkpt lat="39.96095872500616" lon="9.431709153101853"><ele>802.0</ele><time>2026-04-29T09:40:13.845Z</time></trkpt><trkpt lat="39.96104083618356" lon="9.43159564362296"><ele>802.25</ele><time>2026-04-29T09:40:14.845Z</time></trkpt><trkpt lat="39.96112677563661" lon="9.431485018778947"><ele>802.5</ele><time>2026-04-29T09:40:15.845Z</time></trkpt><trkpt lat="39.96122086384604" lon="9.43137405053175"><ele>802.75</ele><time>2026-04-29T09:40:16.845Z</time></trkpt><trkpt lat="39.96133085671083" lon="9.431277843100212"><ele>803.0</ele><time>2026-04-29T09:40:17.845Z</time></trkpt><trkpt lat="39.96144772818705" lon="9.431191347870914"><ele>803.0</ele><time>2026-04-29T09:40:18.845Z</time></trkpt><trkpt lat="39.9615585631788" lon="9.431103382804126"><ele>803.0</ele><time>2026-04-29T09:40:19.845Z</time></trkpt><trkpt lat="39.96167563696117" lon="9.43101877006425"><ele>803.0</ele><time>2026-04-29T09:40:20.845Z</time></trkpt><trkpt lat="39.9617964488727" lon="9.430939156142655"><ele>803.0</ele><time>2026-04-29T09:40:21.845Z</time></trkpt><trkpt lat="39.961931341909114" lon="9.430885862876785"><ele>803.25</ele><time>2026-04-29T09:40:22.845Z</time></trkpt><trkpt lat="39.962057035490254" lon="9.430841074489775"><ele>803.5</ele><time>2026-04-29T09:40:23.845Z</time></trkpt><trkpt lat="39.962174199101554" lon="9.430809758062875"><ele>803.75</ele><time>2026-04-29T09:40:24.845Z</time></trkpt><trkpt lat="39.96227355375833" lon="9.43076531304459"><ele>804.0</ele><time>2026-04-29T09:40:25.845Z</time></trkpt><trkpt lat="39.962368738380796" lon="9.4306631565045"><ele>804.0</ele><time>2026-04-29T09:40:26.845Z</time></trkpt><trkpt lat="39.962451840565485" lon="9.430542401371225"><ele>804.0</ele><time>2026-04-29T09:40:27.845Z</time></trkpt><trkpt lat="39.962511605572374" lon="9.430407832648761"><ele>804.0</ele><time>2026-04-29T09:40:28.845Z</time></trkpt><trkpt lat="39.96259390221836" lon="9.430288782630035"><ele>804.0</ele><time>2026-04-29T09:40:29.845Z</time></trkpt><trkpt lat="39.962653951769035" lon="9.430167824059245"><ele>805.6</ele><time>2026-04-29T09:40:30.845Z</time></trkpt><trkpt lat="39.96268639296126" lon="9.430028577129077"><ele>807.2</ele><time>2026-04-29T09:40:31.845Z</time></trkpt><trkpt lat="39.962684146884456" lon="9.429890628479427"><ele>808.8000000000001</ele><time>2026-04-29T09:40:32.845Z</time></trkpt><trkpt lat="39.96265788637881" lon="9.429768813971075"><ele>810.4000000000001</ele><time>2026-04-29T09:40:33.845Z</time></trkpt><trkpt lat="39.962650331116855" lon="9.42964838968676"><ele>812.0</ele><time>2026-04-29T09:40:34.845Z</time></trkpt><trkpt lat="39.96262091732027" lon="9.429537205505076"><ele>812.6666666666667</ele><time>2026-04-29T09:40:35.845Z</time></trkpt><trkpt lat="39.96276343300269" lon="9.429427238567873"><ele>813.3333333333333</ele><time>2026-04-29T09:40:36.845Z</time></trkpt><trkpt lat="39.96287439151456" lon="9.429302978844031"><ele>814.0</ele><time>2026-04-29T09:40:37.845Z</time></trkpt><trkpt lat="39.962998609401566" lon="9.42915997836108"><ele>814.0</ele><time>2026-04-29T09:40:38.845Z</time></trkpt><trkpt lat="39.963049013482156" lon="9.429092214188776"><ele>814.0</ele><time>2026-04-29T09:40:40.845Z</time></trkpt><trkpt lat="39.96315143504079" lon="9.428980683835851"><ele>814.0</ele><time>2026-04-29T09:40:41.845Z</time></trkpt><trkpt lat="39.96326086800743" lon="9.4288607815463"><ele>814.0</ele><time>2026-04-29T09:40:42.845Z</time></trkpt><trkpt lat="39.96336755725461" lon="9.428743168945005"><ele>816.75</ele><time>2026-04-29T09:40:43.845Z</time></trkpt><trkpt lat="39.9634712527622" lon="9.428630317707086"><ele>819.5</ele><time>2026-04-29T09:40:44.845Z</time></trkpt><trkpt lat="39.96357598572241" lon="9.428515717880753"><ele>822.25</ele><time>2026-04-29T09:40:45.845Z</time></trkpt><trkpt lat="39.96368398965664" lon="9.428397069916953"><ele>825.0</ele><time>2026-04-29T09:40:46.845Z</time></trkpt><trkpt lat="39.9637938904438" lon="9.428271323323392"><ele>825.0</ele><time>2026-04-29T09:40:47.845Z</time></trkpt><trkpt lat="39.96390662651963" lon="9.428145411690629"><ele>825.0</ele><time>2026-04-29T09:40:48.845Z</time></trkpt><trkpt lat="39.96401650501688" lon="9.428019923975864"><ele>825.0</ele><time>2026-04-29T09:40:49.845Z</time></trkpt><trkpt lat="39.96411548011784" lon="9.427892457876238"><ele>825.0</ele><time>2026-04-29T09:40:50.845Z</time></trkpt><trkpt lat="39.96420541631385" lon="9.427753293899682"><ele>826.75</ele><time>2026-04-29T09:40:51.845Z</time></trkpt><trkpt lat="39.964283561773215" lon="9.427610548222866"><ele>828.5</ele><time>2026-04-29T09:40:52.845Z</time></trkpt><trkpt lat="39.96435030358822" lon="9.427457610301555"><ele>830.25</ele><time>2026-04-29T09:40:53.845Z</time></trkpt><trkpt lat="39.964414242042025" lon="9.427306669687033"><ele>832.0</ele><time>2026-04-29T09:40:54.845Z</time></trkpt><trkpt lat="39.96448074444426" lon="9.427154729164037"><ele>832.5</ele><time>2026-04-29T09:40:55.845Z</time></trkpt><trkpt lat="39.96454875728803" lon="9.427001830020695"><ele>833.0</ele><time>2026-04-29T09:40:56.845Z</time></trkpt><trkpt lat="39.9646046155858" lon="9.426853206948186"><ele>833.5</ele><time>2026-04-29T09:40:57.845Z</time></trkpt><trkpt lat="39.964658877852486" lon="9.426725603922474"><ele>834.0</ele><time>2026-04-29T09:40:58.845Z</time></trkpt><trkpt lat="39.9647134721802" lon="9.426604986470855"><ele>834.0</ele><time>2026-04-29T09:40:59.845Z</time></trkpt><trkpt lat="39.96476807277682" lon="9.426495549079524"><ele>834.0</ele><time>2026-04-29T09:41:00.845Z</time></trkpt><trkpt lat="39.96481617827474" lon="9.426383183563216"><ele>834.0</ele><time>2026-04-29T09:41:01.845Z</time></trkpt><trkpt lat="39.964868740282526" lon="9.426262912686305"><ele>834.0</ele><time>2026-04-29T09:41:02.845Z</time></trkpt><trkpt lat="39.964926855305414" lon="9.426134130039562"><ele>834.0</ele><time>2026-04-29T09:41:03.845Z</time></trkpt><trkpt lat="39.9649900132612" lon="9.426000408116208"><ele>835.75</ele><time>2026-04-29T09:41:04.845Z</time></trkpt><trkpt lat="39.96505532441076" lon="9.425853115996992"><ele>837.5</ele><time>2026-04-29T09:41:05.845Z</time></trkpt><trkpt lat="39.96512026586231" lon="9.42569800791052"><ele>839.25</ele><time>2026-04-29T09:41:06.845Z</time></trkpt><trkpt lat="39.965187282503976" lon="9.425535418793812"><ele>841.0</ele><time>2026-04-29T09:41:07.845Z</time></trkpt><trkpt lat="39.965256986446455" lon="9.42537221019647"><ele>841.0</ele><time>2026-04-29T09:41:08.845Z</time></trkpt><trkpt lat="39.965329356841934" lon="9.425207248452645"><ele>841.0</ele><time>2026-04-29T09:41:09.845Z</time></trkpt><trkpt lat="39.96540587452448" lon="9.425034384263142"><ele>841.0</ele><time>2026-04-29T09:41:10.845Z</time></trkpt><trkpt lat="39.96548700268277" lon="9.424855774500694"><ele>841.0</ele><time>2026-04-29T09:41:11.845Z</time></trkpt><trkpt lat="39.965568759150884" lon="9.424676488087627"><ele>841.0</ele><time>2026-04-29T09:41:12.845Z</time></trkpt><trkpt lat="39.965651037679436" lon="9.424491738859595"><ele>841.0</ele><time>2026-04-29T09:41:13.845Z</time></trkpt><trkpt lat="39.96573832008245" lon="9.42430561415908"><ele>841.6666666666666</ele><time>2026-04-29T09:41:14.845Z</time></trkpt><trkpt lat="39.96582445528945" lon="9.424124661353193"><ele>842.3333333333333</ele><time>2026-04-29T09:41:15.845Z</time></trkpt><trkpt lat="39.965915960790305" lon="9.423945393451673"><ele>843.0</ele><time>2026-04-29T09:41:16.845Z</time></trkpt><trkpt lat="39.96601339753372" lon="9.423766788918467"><ele>843.0</ele><time>2026-04-29T09:41:17.845Z</time></trkpt><trkpt lat="39.966111632548355" lon="9.423587543186416"><ele>843.0</ele><time>2026-04-29T09:41:18.845Z</time></trkpt><trkpt lat="39.9662166915508" lon="9.423413341181275"><ele>843.0</ele><time>2026-04-29T09:41:19.845Z</time></trkpt><trkpt lat="39.96631833152078" lon="9.423244191095039"><ele>843.0</ele><time>2026-04-29T09:41:20.845Z</time></trkpt><trkpt lat="39.96641450926358" lon="9.423074654150527"><ele>843.0</ele><time>2026-04-29T09:41:21.845Z</time></trkpt><trkpt lat="39.96649544733955" lon="9.42289040981194"><ele>843.0</ele><time>2026-04-29T09:41:22.845Z</time></trkpt><trkpt lat="39.96656064216712" lon="9.422694781743628"><ele>841.0</ele><time>2026-04-29T09:41:23.845Z</time></trkpt><trkpt lat="39.96662355662554" lon="9.422501614918565"><ele>839.0</ele><time>2026-04-29T09:41:24.845Z</time></trkpt><trkpt lat="39.96669980097411" lon="9.422318387890229"><ele>837.0</ele><time>2026-04-29T09:41:25.845Z</time></trkpt><trkpt lat="39.96678403019276" lon="9.422166529062416"><ele>839.5</ele><time>2026-04-29T09:41:26.845Z</time></trkpt><trkpt lat="39.966877557742244" lon="9.422052352541025"><ele>842.0</ele><time>2026-04-29T09:41:27.845Z</time></trkpt><trkpt lat="39.966997534401386" lon="9.421983569377316"><ele>844.5</ele><time>2026-04-29T09:41:28.845Z</time></trkpt><trkpt lat="39.9671185849758" lon="9.421917653478856"><ele>847.0</ele><time>2026-04-29T09:41:29.845Z</time></trkpt><trkpt lat="39.96724721219491" lon="9.421839539317412"><ele>847.0</ele><time>2026-04-29T09:41:30.845Z</time></trkpt><trkpt lat="39.96739038719926" lon="9.421780868356732"><ele>847.0</ele><time>2026-04-29T09:41:31.845Z</time></trkpt><trkpt lat="39.96753987641828" lon="9.421709018729942"><ele>847.0</ele><time>2026-04-29T09:41:32.845Z</time></trkpt><trkpt lat="39.96767664162922" lon="9.42163869409031"><ele>847.5</ele><time>2026-04-29T09:41:33.845Z</time></trkpt><trkpt lat="39.96779139962445" lon="9.421572565446404"><ele>848.0</ele><time>2026-04-29T09:41:34.845Z</time></trkpt><trkpt lat="39.96790527735531" lon="9.421500187260822"><ele>848.5</ele><time>2026-04-29T09:41:35.845Z</time></trkpt><trkpt lat="39.96801519234188" lon="9.421421494492629"><ele>849.0</ele><time>2026-04-29T09:41:36.845Z</time></trkpt><trkpt lat="39.96812258348545" lon="9.421337584597435"><ele>848.0</ele><time>2026-04-29T09:41:37.845Z</time></trkpt><trkpt lat="39.96822593674033" lon="9.4212562643635"><ele>847.0</ele><time>2026-04-29T09:41:38.845Z</time></trkpt><trkpt lat="39.96832892491056" lon="9.421165387053405"><ele>846.0</ele><time>2026-04-29T09:41:39.845Z</time></trkpt><trkpt lat="39.96844142633722" lon="9.421079907506485"><ele>845.0</ele><time>2026-04-29T09:41:40.845Z</time></trkpt><trkpt lat="39.96856418203286" lon="9.421000832451393"><ele>844.25</ele><time>2026-04-29T09:41:41.843Z</time></trkpt><trkpt lat="39.968690726300515" lon="9.420930437736764"><ele>843.5</ele><time>2026-04-29T09:41:42.844Z</time></trkpt><trkpt lat="39.96882598201924" lon="9.420874579692816"><ele>842.75</ele><time>2026-04-29T09:41:43.844Z</time></trkpt><trkpt lat="39.96896527150586" lon="9.420830884145788"><ele>842.0</ele><time>2026-04-29T09:41:44.843Z</time></trkpt><trkpt lat="39.96911085044497" lon="9.420831556795124"><ele>842.75</ele><time>2026-04-29T09:41:45.843Z</time></trkpt><trkpt lat="39.96925035953663" lon="9.420786195846443"><ele>843.5</ele><time>2026-04-29T09:41:46.843Z</time></trkpt><trkpt lat="39.969371600875505" lon="9.420697557415627"><ele>844.25</ele><time>2026-04-29T09:41:47.843Z</time></trkpt><trkpt lat="39.969497436208805" lon="9.420594880243776"><ele>845.0</ele><time>2026-04-29T09:41:48.843Z</time></trkpt><trkpt lat="39.96962940356914" lon="9.420497762965248"><ele>839.6666666666667</ele><time>2026-04-29T09:41:49.843Z</time></trkpt><trkpt lat="39.9697684326914" lon="9.42041247086997"><ele>834.3333333333333</ele><time>2026-04-29T09:41:50.844Z</time></trkpt><trkpt lat="39.969909131449604" lon="9.420336242750949"><ele>829.0</ele><time>2026-04-29T09:41:51.843Z</time></trkpt><trkpt lat="39.97006402859752" lon="9.420253286891459"><ele>827.6666666666666</ele><time>2026-04-29T09:41:52.843Z</time></trkpt><trkpt lat="39.97022298897691" lon="9.420183665404174"><ele>826.3333333333333</ele><time>2026-04-29T09:41:53.843Z</time></trkpt><trkpt lat="39.97037060017088" lon="9.420122795445787"><ele>825.0</ele><time>2026-04-29T09:41:54.843Z</time></trkpt><trkpt lat="39.970523321863766" lon="9.420066708288122"><ele>825.0</ele><time>2026-04-29T09:41:55.843Z</time></trkpt><trkpt lat="39.97067264818897" lon="9.419996440210717"><ele>825.0</ele><time>2026-04-29T09:41:56.843Z</time></trkpt><trkpt lat="39.97080764408736" lon="9.419937923721886"><ele>825.0</ele><time>2026-04-29T09:41:57.843Z</time></trkpt><trkpt lat="39.97093797278718" lon="9.419873677550163"><ele>825.0</ele><time>2026-04-29T09:41:58.843Z</time></trkpt><trkpt lat="39.971055529428284" lon="9.419814599289394"><ele>827.25</ele><time>2026-04-29T09:41:59.843Z</time></trkpt><trkpt lat="39.9711613104437" lon="9.419743592123018"><ele>829.5</ele><time>2026-04-29T09:42:00.843Z</time></trkpt><trkpt lat="39.97126606849832" lon="9.419660728995503"><ele>831.75</ele><time>2026-04-29T09:42:01.843Z</time></trkpt><trkpt lat="39.97137018557892" lon="9.4195975730252"><ele>834.0</ele><time>2026-04-29T09:42:02.843Z</time></trkpt><trkpt lat="39.97147390023433" lon="9.41950037640963"><ele>830.0</ele><time>2026-04-29T09:42:03.843Z</time></trkpt><trkpt lat="39.97157264324904" lon="9.419400689649715"><ele>826.0</ele><time>2026-04-29T09:42:04.843Z</time></trkpt><trkpt lat="39.97167475826706" lon="9.419295104558264"><ele>822.0</ele><time>2026-04-29T09:42:05.843Z</time></trkpt><trkpt lat="39.97177302313715" lon="9.419197894445968"><ele>818.0</ele><time>2026-04-29T09:42:06.843Z</time></trkpt><trkpt lat="39.97187936634712" lon="9.419098607685688"><ele>818.0</ele><time>2026-04-29T09:42:07.843Z</time></trkpt><trkpt lat="39.97199699464929" lon="9.419005046272659"><ele>818.0</ele><time>2026-04-29T09:42:08.843Z</time></trkpt><trkpt lat="39.97212547842518" lon="9.41892242080465"><ele>818.0</ele><time>2026-04-29T09:42:09.843Z</time></trkpt><trkpt lat="39.972263316758585" lon="9.418850966249982"><ele>818.0</ele><time>2026-04-29T09:42:10.843Z</time></trkpt><trkpt lat="39.97240487436717" lon="9.418777154324204"><ele>813.3333333333334</ele><time>2026-04-29T09:42:11.843Z</time></trkpt><trkpt lat="39.972549098332706" lon="9.418712846944333"><ele>808.6666666666667</ele><time>2026-04-29T09:42:12.843Z</time></trkpt><trkpt lat="39.97268910964703" lon="9.418638671509216"><ele>804.0</ele><time>2026-04-29T09:42:13.843Z</time></trkpt><trkpt lat="39.97282137019593" lon="9.41854836692065"><ele>804.0</ele><time>2026-04-29T09:42:14.843Z</time></trkpt><trkpt lat="39.97295689414941" lon="9.418451750167495"><ele>804.0</ele><time>2026-04-29T09:42:15.843Z</time></trkpt><trkpt lat="39.97309046083998" lon="9.418351665470206"><ele>804.0</ele><time>2026-04-29T09:42:16.843Z</time></trkpt><trkpt lat="39.97321908815666" lon="9.418239295332743"><ele>804.0</ele><time>2026-04-29T09:42:17.843Z</time></trkpt><trkpt lat="39.973354074696566" lon="9.41813088252282"><ele>804.0</ele><time>2026-04-29T09:42:18.843Z</time></trkpt><trkpt lat="39.97349144502247" lon="9.41801321375925"><ele>804.0</ele><time>2026-04-29T09:42:19.843Z</time></trkpt><trkpt lat="39.973630319727675" lon="9.417883459527006"><ele>799.6666666666667</ele><time>2026-04-29T09:42:20.843Z</time></trkpt><trkpt lat="39.9737692201951" lon="9.417761148668472"><ele>795.3333333333334</ele><time>2026-04-29T09:42:21.843Z</time></trkpt><trkpt lat="39.97391022398619" lon="9.417639945793397"><ele>791.0</ele><time>2026-04-29T09:42:22.843Z</time></trkpt><trkpt lat="39.974054738973145" lon="9.417518811778956"><ele>793.6666666666667</ele><time>2026-04-29T09:42:23.843Z</time></trkpt><trkpt lat="39.974199982036005" lon="9.417394508110174"><ele>796.3333333333333</ele><time>2026-04-29T09:42:24.843Z</time></trkpt><trkpt lat="39.974342637460445" lon="9.417283844804741"><ele>799.0</ele><time>2026-04-29T09:42:25.843Z</time></trkpt><trkpt lat="39.97448635594551" lon="9.417169770032878"><ele>792.6666666666666</ele><time>2026-04-29T09:42:26.843Z</time></trkpt><trkpt lat="39.97462642154053" lon="9.417046847483999"><ele>786.3333333333333</ele><time>2026-04-29T09:42:27.843Z</time></trkpt><trkpt lat="39.97476406963644" lon="9.416929729447611"><ele>780.0</ele><time>2026-04-29T09:42:28.843Z</time></trkpt><trkpt lat="39.97490833221197" lon="9.416827724124845"><ele>782.0</ele><time>2026-04-29T09:42:29.843Z</time></trkpt><trkpt lat="39.975054879364734" lon="9.416731056048041"><ele>784.0</ele><time>2026-04-29T09:42:30.843Z</time></trkpt><trkpt lat="39.975202196617815" lon="9.416641857894305"><ele>786.0</ele><time>2026-04-29T09:42:31.843Z</time></trkpt><trkpt lat="39.975355582845346" lon="9.416548176398573"><ele>786.0</ele><time>2026-04-29T09:42:32.843Z</time></trkpt><trkpt lat="39.97550398849428" lon="9.416454099694548"><ele>786.0</ele><time>2026-04-29T09:42:33.843Z</time></trkpt><trkpt lat="39.975658958829975" lon="9.41636367694551"><ele>786.0</ele><time>2026-04-29T09:42:34.843Z</time></trkpt><trkpt lat="39.975824146403106" lon="9.416273543387456"><ele>784.0</ele><time>2026-04-29T09:42:35.843Z</time></trkpt><trkpt lat="39.97597620388685" lon="9.416172331037982"><ele>782.0</ele><time>2026-04-29T09:42:36.843Z</time></trkpt><trkpt lat="39.976136469564565" lon="9.416084905941474"><ele>780.0</ele><time>2026-04-29T09:42:37.843Z</time></trkpt><trkpt lat="39.97630038547302" lon="9.416003572802149"><ele>780.0</ele><time>2026-04-29T09:42:38.843Z</time></trkpt><trkpt lat="39.97646772821882" lon="9.415908920198557"><ele>780.0</ele><time>2026-04-29T09:42:39.843Z</time></trkpt><trkpt lat="39.9766280475997" lon="9.41579600123972"><ele>780.0</ele><time>2026-04-29T09:42:40.843Z</time></trkpt><trkpt lat="39.97679029839429" lon="9.415681890518092"><ele>781.0</ele><time>2026-04-29T09:42:41.843Z</time></trkpt><trkpt lat="39.97695391048392" lon="9.415558561932475"><ele>782.0</ele><time>2026-04-29T09:42:42.843Z</time></trkpt><trkpt lat="39.97712013102352" lon="9.415440271153562"><ele>783.0</ele><time>2026-04-29T09:42:43.843Z</time></trkpt><trkpt lat="39.977285758613654" lon="9.415315442875956"><ele>779.0</ele><time>2026-04-29T09:42:44.843Z</time></trkpt><trkpt lat="39.97745061273661" lon="9.415188998115765"><ele>775.0</ele><time>2026-04-29T09:42:45.843Z</time></trkpt><trkpt lat="39.9776134438667" lon="9.415068763489764"><ele>771.0</ele><time>2026-04-29T09:42:46.843Z</time></trkpt><trkpt lat="39.97778150744439" lon="9.414935772047942"><ele>771.0</ele><time>2026-04-29T09:42:47.843Z</time></trkpt><trkpt lat="39.977945497066" lon="9.414808760971988"><ele>771.0</ele><time>2026-04-29T09:42:48.843Z</time></trkpt><trkpt lat="39.97810578474733" lon="9.414682376021009"><ele>771.0</ele><time>2026-04-29T09:42:49.843Z</time></trkpt><trkpt lat="39.97826872168271" lon="9.414559937732681"><ele>770.6666666666667</ele><time>2026-04-29T09:42:50.843Z</time></trkpt><trkpt lat="39.97842511848942" lon="9.414441266526811"><ele>770.3333333333334</ele><time>2026-04-29T09:42:51.843Z</time></trkpt><trkpt lat="39.97858665703655" lon="9.41432021787569"><ele>770.0</ele><time>2026-04-29T09:42:52.843Z</time></trkpt><trkpt lat="39.978744265889446" lon="9.414204982573887"><ele>770.0</ele><time>2026-04-29T09:42:53.843Z</time></trkpt><trkpt lat="39.97889861187929" lon="9.41407505640042"><ele>770.0</ele><time>2026-04-29T09:42:54.843Z</time></trkpt><trkpt lat="39.97904218745771" lon="9.413968579657324"><ele>770.0</ele><time>2026-04-29T09:42:55.843Z</time></trkpt><trkpt lat="39.97917783937692" lon="9.413876072830542"><ele>771.3333333333334</ele><time>2026-04-29T09:42:56.843Z</time></trkpt><trkpt lat="39.97933146130193" lon="9.413820519778236"><ele>772.6666666666667</ele><time>2026-04-29T09:42:57.843Z</time></trkpt><trkpt lat="39.9794884422861" lon="9.413775807963605"><ele>774.0</ele><time>2026-04-29T09:42:58.843Z</time></trkpt><trkpt lat="39.979656973922836" lon="9.413731568135178"><ele>774.0</ele><time>2026-04-29T09:42:59.843Z</time></trkpt><trkpt lat="39.97982660814336" lon="9.413674107573511"><ele>774.0</ele><time>2026-04-29T09:43:00.843Z</time></trkpt><trkpt lat="39.98000234071163" lon="9.413637717020833"><ele>774.0</ele><time>2026-04-29T09:43:01.843Z</time></trkpt><trkpt lat="39.98016735692717" lon="9.413594702339308"><ele>773.5</ele><time>2026-04-29T09:43:02.843Z</time></trkpt><trkpt lat="39.98031525856942" lon="9.413563185544685"><ele>773.0</ele><time>2026-04-29T09:43:03.843Z</time></trkpt><trkpt lat="39.98046073961679" lon="9.4135376170533"><ele>772.5</ele><time>2026-04-29T09:43:04.843Z</time></trkpt><trkpt lat="39.98058508542009" lon="9.413507840795035"><ele>772.0</ele><time>2026-04-29T09:43:05.843Z</time></trkpt><trkpt lat="39.9807028130987" lon="9.413464630878893"><ele>772.0</ele><time>2026-04-29T09:43:06.843Z</time></trkpt><trkpt lat="39.98082257248606" lon="9.413393790750547"><ele>772.0</ele><time>2026-04-29T09:43:07.843Z</time></trkpt><trkpt lat="39.98093377936164" lon="9.413319079770963"><ele>772.0</ele><time>2026-04-29T09:43:08.843Z</time></trkpt><trkpt lat="39.98102705756095" lon="9.413242623195384"><ele>772.0</ele><time>2026-04-29T09:43:09.843Z</time></trkpt><trkpt lat="39.981112763959395" lon="9.413148441539528"><ele>769.6</ele><time>2026-04-29T09:43:10.843Z</time></trkpt><trkpt lat="39.9811809702793" lon="9.413047038935641"><ele>767.2</ele><time>2026-04-29T09:43:11.843Z</time></trkpt><trkpt lat="39.98123693477072" lon="9.412944694568688"><ele>764.8</ele><time>2026-04-29T09:43:12.843Z</time></trkpt><trkpt lat="39.98129032752704" lon="9.412823514643925"><ele>762.4</ele><time>2026-04-29T09:43:13.843Z</time></trkpt><trkpt lat="39.98133871283497" lon="9.412709229895825"><ele>760.0</ele><time>2026-04-29T09:43:14.843Z</time></trkpt><trkpt lat="39.98137090506264" lon="9.412601885551261"><ele>759.3333333333334</ele><time>2026-04-29T09:43:15.843Z</time></trkpt><trkpt lat="39.981394340532034" lon="9.41250668333599"><ele>758.6666666666667</ele><time>2026-04-29T09:43:16.843Z</time></trkpt><trkpt lat="39.98143585198024" lon="9.412439922545879"><ele>758.0</ele><time>2026-04-29T09:43:17.843Z</time></trkpt><trkpt lat="39.98147509729042" lon="9.412342451681896"><ele>757.3333333333334</ele><time>2026-04-29T09:43:19.843Z</time></trkpt><trkpt lat="39.98153292689426" lon="9.412279871702616"><ele>756.6666666666666</ele><time>2026-04-29T09:43:22.843Z</time></trkpt><trkpt lat="39.98161860831066" lon="9.412233673338628"><ele>756.0</ele><time>2026-04-29T09:43:24.843Z</time></trkpt><trkpt lat="39.9817373518611" lon="9.412178871094609"><ele>756.1999999999999</ele><time>2026-04-29T09:43:26.843Z</time></trkpt><trkpt lat="39.98183168627217" lon="9.41213421264665"><ele>756.4</ele><time>2026-04-29T09:43:27.843Z</time></trkpt><trkpt lat="39.98192599186668" lon="9.412097211643179"><ele>756.6</ele><time>2026-04-29T09:43:28.843Z</time></trkpt><trkpt lat="39.98201382828664" lon="9.412050111319918"><ele>756.8</ele><time>2026-04-29T09:43:29.843Z</time></trkpt><trkpt lat="39.98210310654371" lon="9.412013722288098"><ele>757.0</ele><time>2026-04-29T09:43:30.843Z</time></trkpt><trkpt lat="39.982193404934065" lon="9.412000348395809"><ele>757.0</ele><time>2026-04-29T09:43:31.843Z</time></trkpt><trkpt lat="39.98227989889529" lon="9.41199959833977"><ele>757.0</ele><time>2026-04-29T09:43:32.843Z</time></trkpt><trkpt lat="39.982353874076544" lon="9.412034591921051"><ele>757.0</ele><time>2026-04-29T09:43:33.843Z</time></trkpt><trkpt lat="39.982414709741526" lon="9.412077580881386"><ele>757.0</ele><time>2026-04-29T09:43:34.843Z</time></trkpt><trkpt lat="39.98249259561248" lon="9.412120923537767"><ele>757.0</ele><time>2026-04-29T09:43:35.843Z</time></trkpt><trkpt lat="39.98257168338364" lon="9.412170503008461"><ele>757.0</ele><time>2026-04-29T09:43:36.843Z</time></trkpt><trkpt lat="39.98264708939256" lon="9.412202142672859"><ele>759.2</ele><time>2026-04-29T09:43:37.843Z</time></trkpt><trkpt lat="39.982704626413785" lon="9.4122553777038"><ele>761.4000000000001</ele><time>2026-04-29T09:43:38.843Z</time></trkpt><trkpt lat="39.982775124870464" lon="9.412289167956352"><ele>763.5999999999999</ele><time>2026-04-29T09:43:39.843Z</time></trkpt><trkpt lat="39.98289036954007" lon="9.412314424687464"><ele>765.8</ele><time>2026-04-29T09:43:41.843Z</time></trkpt><trkpt lat="39.98296324055676" lon="9.412284237849256"><ele>768.0</ele><time>2026-04-29T09:43:43.843Z</time></trkpt><trkpt lat="39.982958788518175" lon="9.411948651465021"><ele>768.25</ele><time>2026-04-29T09:43:44.843Z</time></trkpt><trkpt lat="39.98297711889796" lon="9.411842670596354"><ele>768.5</ele><time>2026-04-29T09:43:45.843Z</time></trkpt><trkpt lat="39.98297447865738" lon="9.411735794863736"><ele>768.75</ele><time>2026-04-29T09:43:46.843Z</time></trkpt><trkpt lat="39.98298421410519" lon="9.411646243916374"><ele>769.0</ele><time>2026-04-29T09:43:47.842Z</time></trkpt><trkpt lat="39.98365389566221" lon="9.4120341929588"><ele>770.6</ele><time>2026-04-29T09:43:48.842Z</time></trkpt><trkpt lat="39.983749595371634" lon="9.412003838563775"><ele>772.2</ele><time>2026-04-29T09:43:49.842Z</time></trkpt><trkpt lat="39.98384423540109" lon="9.411976262368741"><ele>773.8000000000001</ele><time>2026-04-29T09:43:50.842Z</time></trkpt><trkpt lat="39.983938818981386" lon="9.411955050495951"><ele>775.4000000000001</ele><time>2026-04-29T09:43:51.842Z</time></trkpt><trkpt lat="39.984037521793766" lon="9.411931038041969"><ele>777.0</ele><time>2026-04-29T09:43:52.842Z</time></trkpt><trkpt lat="39.98413423962988" lon="9.411916048917556"><ele>778.4000000000001</ele><time>2026-04-29T09:43:53.842Z</time></trkpt><trkpt lat="39.9842235862915" lon="9.411875112920377"><ele>779.8000000000001</ele><time>2026-04-29T09:43:54.842Z</time></trkpt><trkpt lat="39.984308285091856" lon="9.41183183325303"><ele>781.2</ele><time>2026-04-29T09:43:55.842Z</time></trkpt><trkpt lat="39.98439030013196" lon="9.411790095421248"><ele>782.6</ele><time>2026-04-29T09:43:56.842Z</time></trkpt><trkpt lat="39.984477158624756" lon="9.411749104375431"><ele>784.0</ele><time>2026-04-29T09:43:57.842Z</time></trkpt><trkpt lat="39.98456576128412" lon="9.411714937174024"><ele>784.0</ele><time>2026-04-29T09:43:58.842Z</time></trkpt><trkpt lat="39.98465589536732" lon="9.411683300968736"><ele>784.0</ele><time>2026-04-29T09:43:59.842Z</time></trkpt><trkpt lat="39.98475152462246" lon="9.411648253126748"><ele>784.0</ele><time>2026-04-29T09:44:00.842Z</time></trkpt><trkpt lat="39.98485133000011" lon="9.411612240266505"><ele>784.0</ele><time>2026-04-29T09:44:01.842Z</time></trkpt><trkpt lat="39.98495479121246" lon="9.411576000635568"><ele>784.0</ele><time>2026-04-29T09:44:02.842Z</time></trkpt><trkpt lat="39.985057065926725" lon="9.411541890972485"><ele>786.0</ele><time>2026-04-29T09:44:03.842Z</time></trkpt><trkpt lat="39.9851646322824" lon="9.411507439358433"><ele>788.0</ele><time>2026-04-29T09:44:04.842Z</time></trkpt><trkpt lat="39.98524923221495" lon="9.411476885735784"><ele>790.0</ele><time>2026-04-29T09:44:05.842Z</time></trkpt><trkpt lat="39.98533772491068" lon="9.411445513168488"><ele>792.0</ele><time>2026-04-29T09:44:06.842Z</time></trkpt><trkpt lat="39.9854259791482" lon="9.411428498327666"><ele>794.0</ele><time>2026-04-29T09:44:07.842Z</time></trkpt><trkpt lat="39.98550580581307" lon="9.4114107426071"><ele>794.0000000000001</ele><time>2026-04-29T09:44:08.842Z</time></trkpt><trkpt lat="39.985577025533054" lon="9.41142486476885"><ele>794.0</ele><time>2026-04-29T09:44:09.842Z</time></trkpt><trkpt lat="39.98564564606188" lon="9.411428745624956"><ele>794.0</ele><time>2026-04-29T09:44:10.842Z</time></trkpt><trkpt lat="39.98576111913628" lon="9.411353181904822"><ele>794.0</ele><time>2026-04-29T09:44:12.842Z</time></trkpt><trkpt lat="39.98583559367185" lon="9.411340023883232"><ele>794.0000000000001</ele><time>2026-04-29T09:44:13.842Z</time></trkpt><trkpt lat="39.985919377634694" lon="9.411355363876776"><ele>794.0</ele><time>2026-04-29T09:44:14.842Z</time></trkpt><trkpt lat="39.98600683829533" lon="9.411331082016453"><ele>793.6</ele><time>2026-04-29T09:44:15.842Z</time></trkpt><trkpt lat="39.986101597394764" lon="9.411325711131557"><ele>793.2</ele><time>2026-04-29T09:44:16.842Z</time></trkpt><trkpt lat="39.98619658965884" lon="9.411325385733518"><ele>792.8000000000001</ele><time>2026-04-29T09:44:17.842Z</time></trkpt><trkpt lat="39.98629175649623" lon="9.411322797687916"><ele>792.4000000000001</ele><time>2026-04-29T09:44:18.842Z</time></trkpt><trkpt lat="39.9863851271043" lon="9.411324732614823"><ele>792.0</ele><time>2026-04-29T09:44:19.842Z</time></trkpt><trkpt lat="39.986477542976324" lon="9.411333901337063"><ele>792.0</ele><time>2026-04-29T09:44:20.842Z</time></trkpt><trkpt lat="39.98657146167664" lon="9.411319694332386"><ele>792.0</ele><time>2026-04-29T09:44:21.842Z</time></trkpt><trkpt lat="39.986671134304395" lon="9.411316771091762"><ele>792.0</ele><time>2026-04-29T09:44:22.842Z</time></trkpt><trkpt lat="39.986763902860986" lon="9.411304230186127"><ele>792.0</ele><time>2026-04-29T09:44:23.842Z</time></trkpt><trkpt lat="39.98685176126233" lon="9.411263942787128"><ele>792.0</ele><time>2026-04-29T09:44:24.842Z</time></trkpt><trkpt lat="39.986930426195556" lon="9.411210316844087"><ele>794.2</ele><time>2026-04-29T09:44:25.842Z</time></trkpt><trkpt lat="39.98701848931074" lon="9.411144056871287"><ele>796.4000000000001</ele><time>2026-04-29T09:44:26.842Z</time></trkpt><trkpt lat="39.98709329812409" lon="9.411075769601423"><ele>798.5999999999999</ele><time>2026-04-29T09:44:27.842Z</time></trkpt><trkpt lat="39.98718133179351" lon="9.411042404469253"><ele>800.8</ele><time>2026-04-29T09:44:28.842Z</time></trkpt><trkpt lat="39.987261377282714" lon="9.41099341863263"><ele>803.0</ele><time>2026-04-29T09:44:29.842Z</time></trkpt><trkpt lat="39.987340996023995" lon="9.41095527288885"><ele>803.0000000000001</ele><time>2026-04-29T09:44:30.842Z</time></trkpt><trkpt lat="39.98742388861788" lon="9.41095472836933"><ele>803.0</ele><time>2026-04-29T09:44:31.842Z</time></trkpt><trkpt lat="39.98750467110138" lon="9.410917265427253"><ele>803.0</ele><time>2026-04-29T09:44:32.842Z</time></trkpt><trkpt lat="39.987600418154" lon="9.410905520343507"><ele>803.0</ele><time>2026-04-29T09:44:33.842Z</time></trkpt><trkpt lat="39.987690149636165" lon="9.410898467882962"><ele>803.0000000000001</ele><time>2026-04-29T09:44:34.842Z</time></trkpt><trkpt lat="39.987772628642105" lon="9.410886138610827"><ele>803.0</ele><time>2026-04-29T09:44:35.842Z</time></trkpt><trkpt lat="39.987857387228175" lon="9.410851042567753"><ele>805.4</ele><time>2026-04-29T09:44:36.842Z</time></trkpt><trkpt lat="39.98794204206367" lon="9.410820786320816"><ele>807.8</ele><time>2026-04-29T09:44:37.842Z</time></trkpt><trkpt lat="39.98803310926286" lon="9.410791957600484"><ele>810.2</ele><time>2026-04-29T09:44:38.842Z</time></trkpt><trkpt lat="39.98813058675951" lon="9.410773917697878"><ele>812.6</ele><time>2026-04-29T09:44:39.842Z</time></trkpt><trkpt lat="39.98821474913058" lon="9.410746635655638"><ele>815.0</ele><time>2026-04-29T09:44:40.842Z</time></trkpt><trkpt lat="39.98829679993221" lon="9.410720155279204"><ele>817.0000000000001</ele><time>2026-04-29T09:44:41.842Z</time></trkpt><trkpt lat="39.98838018769214" lon="9.41071612789109"><ele>819.0</ele><time>2026-04-29T09:44:42.842Z</time></trkpt><trkpt lat="39.98845762876589" lon="9.410707618941794"><ele>821.0</ele><time>2026-04-29T09:44:43.842Z</time></trkpt><trkpt lat="39.988547025530075" lon="9.410704275521839"><ele>823.0</ele><time>2026-04-29T09:44:44.842Z</time></trkpt><trkpt lat="39.98862818922599" lon="9.410690175048794"><ele>825.0000000000001</ele><time>2026-04-29T09:44:45.842Z</time></trkpt><trkpt lat="39.98869789375079" lon="9.410672806153542"><ele>827.0</ele><time>2026-04-29T09:44:46.842Z</time></trkpt><trkpt lat="39.98877631099734" lon="9.410663702191446"><ele>827.0000000000001</ele><time>2026-04-29T09:44:47.842Z</time></trkpt><trkpt lat="39.988843542530674" lon="9.41065901830303"><ele>827.0</ele><time>2026-04-29T09:44:48.842Z</time></trkpt><trkpt lat="39.98891326105193" lon="9.410668040587927"><ele>827.0</ele><time>2026-04-29T09:44:49.842Z</time></trkpt><trkpt lat="39.988998145605095" lon="9.410671411466879"><ele>827.0</ele><time>2026-04-29T09:44:50.842Z</time></trkpt><trkpt lat="39.98908102534831" lon="9.410667970865688"><ele>827.0000000000001</ele><time>2026-04-29T09:44:51.842Z</time></trkpt><trkpt lat="39.98916574674412" lon="9.410661135401645"><ele>827.0</ele><time>2026-04-29T09:44:52.842Z</time></trkpt><trkpt lat="39.98924965709436" lon="9.410646977861385"><ele>827.3333333333334</ele><time>2026-04-29T09:44:53.842Z</time></trkpt><trkpt lat="39.98933582097326" lon="9.4106347250423"><ele>827.6666666666667</ele><time>2026-04-29T09:44:54.842Z</time></trkpt><trkpt lat="39.98941395816049" lon="9.410600925797347"><ele>828.0</ele><time>2026-04-29T09:44:55.842Z</time></trkpt><trkpt lat="39.98949476363554" lon="9.41056058677585"><ele>828.3333333333333</ele><time>2026-04-29T09:44:56.842Z</time></trkpt><trkpt lat="39.98957725656197" lon="9.41050840736981"><ele>828.6666666666666</ele><time>2026-04-29T09:44:57.842Z</time></trkpt><trkpt lat="39.98966695419488" lon="9.410456079912475"><ele>829.0</ele><time>2026-04-29T09:44:58.842Z</time></trkpt><trkpt lat="39.989738127008955" lon="9.410393994967658"><ele>828.9999999999999</ele><time>2026-04-29T09:44:59.842Z</time></trkpt><trkpt lat="39.98982332514506" lon="9.410340906709482"><ele>829.0</ele><time>2026-04-29T09:45:00.842Z</time></trkpt><trkpt lat="39.98989683763823" lon="9.410286166205333"><ele>829.0</ele><time>2026-04-29T09:45:01.842Z</time></trkpt><trkpt lat="39.98997291559607" lon="9.410250448485563"><ele>829.0</ele><time>2026-04-29T09:45:02.841Z</time></trkpt><trkpt lat="39.99005703631138" lon="9.410228305674394"><ele>828.9999999999999</ele><time>2026-04-29T09:45:03.841Z</time></trkpt><trkpt lat="39.99015315034927" lon="9.410215593441905"><ele>829.0</ele><time>2026-04-29T09:45:04.841Z</time></trkpt><trkpt lat="39.99024203858513" lon="9.41018895656115"><ele>831.4999999999999</ele><time>2026-04-29T09:45:05.841Z</time></trkpt><trkpt lat="39.990314286025296" lon="9.410177974707107"><ele>834.0</ele><time>2026-04-29T09:45:06.841Z</time></trkpt><trkpt lat="39.990388007274625" lon="9.410164092863967"><ele>836.5</ele><time>2026-04-29T09:45:07.841Z</time></trkpt><trkpt lat="39.9904810637481" lon="9.410156820233578"><ele>839.0</ele><time>2026-04-29T09:45:08.841Z</time></trkpt><trkpt lat="39.990573177093886" lon="9.410148827486065"><ele>841.4999999999999</ele><time>2026-04-29T09:45:09.841Z</time></trkpt><trkpt lat="39.99066609802217" lon="9.410152585110643"><ele>844.0</ele><time>2026-04-29T09:45:10.841Z</time></trkpt><trkpt lat="39.990758763863" lon="9.41012794501225"><ele>843.9999999999999</ele><time>2026-04-29T09:45:11.841Z</time></trkpt><trkpt lat="39.99083385638511" lon="9.41008849391254"><ele>844.0</ele><time>2026-04-29T09:45:12.841Z</time></trkpt><trkpt lat="39.9909169134296" lon="9.410049884883598"><ele>844.0</ele><time>2026-04-29T09:45:13.841Z</time></trkpt><trkpt lat="39.99099001669315" lon="9.409998985001922"><ele>844.0</ele><time>2026-04-29T09:45:14.841Z</time></trkpt><trkpt lat="39.991067066182374" lon="9.409917388325672"><ele>843.9999999999999</ele><time>2026-04-29T09:45:15.841Z</time></trkpt><trkpt lat="39.99114443104641" lon="9.409847642065957"><ele>844.0</ele><time>2026-04-29T09:45:16.841Z</time></trkpt><trkpt lat="39.99118472211454" lon="9.40976268361078"><ele>846.6</ele><time>2026-04-29T09:45:17.841Z</time></trkpt><trkpt lat="39.99123240283495" lon="9.409612349506153"><ele>849.2</ele><time>2026-04-29T09:45:19.841Z</time></trkpt><trkpt lat="39.99124385478049" lon="9.409513029988377"><ele>851.8000000000001</ele><time>2026-04-29T09:45:20.841Z</time></trkpt><trkpt lat="39.99123481274232" lon="9.409404374675809"><ele>854.4000000000001</ele><time>2026-04-29T09:45:21.841Z</time></trkpt><trkpt lat="39.99122280309033" lon="9.40931045747787"><ele>857.0</ele><time>2026-04-29T09:45:22.841Z</time></trkpt><trkpt lat="39.99114770540053" lon="9.40915281832356"><ele>857.0</ele><time>2026-04-29T09:45:24.841Z</time></trkpt><trkpt lat="39.991090996250236" lon="9.409065002595687"><ele>857.0</ele><time>2026-04-29T09:45:25.841Z</time></trkpt><trkpt lat="39.99102635069673" lon="9.408978167430794"><ele>857.0</ele><time>2026-04-29T09:45:26.841Z</time></trkpt><trkpt lat="39.99096988776535" lon="9.408889999330661"><ele>857.0</ele><time>2026-04-29T09:45:27.841Z</time></trkpt><trkpt lat="39.99089620537975" lon="9.408810058938935"><ele>857.0</ele><time>2026-04-29T09:45:28.841Z</time></trkpt><trkpt lat="39.99081970845935" lon="9.408739160204671"><ele>857.6666666666667</ele><time>2026-04-29T09:45:29.841Z</time></trkpt><trkpt lat="39.990744602647766" lon="9.408684148250426"><ele>858.3333333333334</ele><time>2026-04-29T09:45:30.841Z</time></trkpt><trkpt lat="39.99066891206022" lon="9.408637122022583"><ele>859.0</ele><time>2026-04-29T09:45:31.841Z</time></trkpt><trkpt lat="39.99058209282383" lon="9.408605823775797"><ele>859.6666666666667</ele><time>2026-04-29T09:45:32.841Z</time></trkpt><trkpt lat="39.99051075289402" lon="9.408544635860837"><ele>860.3333333333334</ele><time>2026-04-29T09:45:33.841Z</time></trkpt><trkpt lat="39.99043411900038" lon="9.408504126755124"><ele>861.0</ele><time>2026-04-29T09:45:34.841Z</time></trkpt><trkpt lat="39.99036241703794" lon="9.40844661728826"><ele>861.0</ele><time>2026-04-29T09:45:35.841Z</time></trkpt><trkpt lat="39.990306943170665" lon="9.408375466317846"><ele>861.0</ele><time>2026-04-29T09:45:36.841Z</time></trkpt><trkpt lat="39.99027081090055" lon="9.408290988612078"><ele>861.0</ele><time>2026-04-29T09:45:37.841Z</time></trkpt><trkpt lat="39.9902639244079" lon="9.408203180410457"><ele>861.0</ele><time>2026-04-29T09:45:38.841Z</time></trkpt><trkpt lat="39.990265651120815" lon="9.408096663431353"><ele>861.0</ele><time>2026-04-29T09:45:39.841Z</time></trkpt><trkpt lat="39.9902732238296" lon="9.407987542116405"><ele>861.0</ele><time>2026-04-29T09:45:40.841Z</time></trkpt><trkpt lat="39.99030198517725" lon="9.407885234798117"><ele>861.3333333333334</ele><time>2026-04-29T09:45:41.841Z</time></trkpt><trkpt lat="39.99034259307721" lon="9.407805488780559"><ele>861.6666666666667</ele><time>2026-04-29T09:45:42.841Z</time></trkpt><trkpt lat="39.99039834526395" lon="9.40772708990647"><ele>862.0</ele><time>2026-04-29T09:45:43.841Z</time></trkpt><trkpt lat="39.990475016701396" lon="9.407659204738966"><ele>862.3333333333334</ele><time>2026-04-29T09:45:44.841Z</time></trkpt><trkpt lat="39.990561346835825" lon="9.407599104798775"><ele>862.6666666666667</ele><time>2026-04-29T09:45:45.841Z</time></trkpt><trkpt lat="39.99064670022926" lon="9.407539338964114"><ele>863.0</ele><time>2026-04-29T09:45:46.841Z</time></trkpt><trkpt lat="39.99074010500162" lon="9.407485416699771"><ele>863.0</ele><time>2026-04-29T09:45:47.841Z</time></trkpt><trkpt lat="39.99083420596772" lon="9.407417451752561"><ele>863.0</ele><time>2026-04-29T09:45:48.841Z</time></trkpt><trkpt lat="39.990941445124285" lon="9.40735072087957"><ele>863.0</ele><time>2026-04-29T09:45:49.841Z</time></trkpt><trkpt lat="39.9910541471033" lon="9.407282348828858"><ele>863.0</ele><time>2026-04-29T09:45:50.841Z</time></trkpt><trkpt lat="39.99117126731763" lon="9.407209996955345"><ele>863.5</ele><time>2026-04-29T09:45:51.841Z</time></trkpt><trkpt lat="39.9912966228221" lon="9.407137503563678"><ele>864.0</ele><time>2026-04-29T09:45:52.841Z</time></trkpt><trkpt lat="39.99142944389709" lon="9.407054998314603"><ele>864.5</ele><time>2026-04-29T09:45:53.84Z</time></trkpt><trkpt lat="39.991562234841474" lon="9.406976625196336"><ele>865.0</ele><time>2026-04-29T09:45:54.839Z</time></trkpt><trkpt lat="39.99169719690341" lon="9.406892457116946"><ele>865.0</ele><time>2026-04-29T09:45:55.839Z</time></trkpt><trkpt lat="39.9918353740851" lon="9.406804193606277"><ele>865.0</ele><time>2026-04-29T09:45:56.84Z</time></trkpt><trkpt lat="39.99196990882417" lon="9.406730198893388"><ele>865.0</ele><time>2026-04-29T09:45:57.839Z</time></trkpt><trkpt lat="39.99210138311317" lon="9.406661158222288"><ele>865.0</ele><time>2026-04-29T09:45:58.839Z</time></trkpt><trkpt lat="39.99222895839077" lon="9.406584338293756"><ele>865.0</ele><time>2026-04-29T09:45:59.84Z</time></trkpt><trkpt lat="39.99236274265121" lon="9.40650320580286"><ele>865.0</ele><time>2026-04-29T09:46:00.84Z</time></trkpt><trkpt lat="39.99250365718091" lon="9.406414839166382"><ele>865.0</ele><time>2026-04-29T09:46:01.84Z</time></trkpt><trkpt lat="39.992643555157215" lon="9.4063288880462"><ele>864.75</ele><time>2026-04-29T09:46:02.839Z</time></trkpt><trkpt lat="39.99278301403827" lon="9.40624155472927"><ele>864.5</ele><time>2026-04-29T09:46:03.84Z</time></trkpt><trkpt lat="39.99291995017063" lon="9.406158115541903"><ele>864.25</ele><time>2026-04-29T09:46:04.84Z</time></trkpt><trkpt lat="39.99304516929882" lon="9.406079074142657"><ele>864.0</ele><time>2026-04-29T09:46:05.84Z</time></trkpt><trkpt lat="39.993164398996875" lon="9.405987265383173"><ele>864.0</ele><time>2026-04-29T09:46:06.84Z</time></trkpt><trkpt lat="39.99326795290862" lon="9.405903987197494"><ele>864.0000000000001</ele><time>2026-04-29T09:46:07.84Z</time></trkpt><trkpt lat="39.99337121376761" lon="9.405850219863737"><ele>864.0000000000001</ele><time>2026-04-29T09:46:08.84Z</time></trkpt><trkpt lat="39.99345391622449" lon="9.405787458592036"><ele>864.0</ele><time>2026-04-29T09:46:09.84Z</time></trkpt><trkpt lat="39.99353980047704" lon="9.405721184671798"><ele>864.0</ele><time>2026-04-29T09:46:10.84Z</time></trkpt><trkpt lat="39.993618734485324" lon="9.405653231981258"><ele>864.4000000000001</ele><time>2026-04-29T09:46:11.84Z</time></trkpt><trkpt lat="39.99370005391248" lon="9.405593951803061"><ele>864.8000000000001</ele><time>2026-04-29T09:46:12.84Z</time></trkpt><trkpt lat="39.99378811447688" lon="9.405520692487652"><ele>865.1999999999999</ele><time>2026-04-29T09:46:13.84Z</time></trkpt><trkpt lat="39.993887206245496" lon="9.40544019023492"><ele>865.5999999999999</ele><time>2026-04-29T09:46:14.84Z</time></trkpt><trkpt lat="39.99398276384397" lon="9.405363691457742"><ele>866.0</ele><time>2026-04-29T09:46:15.84Z</time></trkpt><trkpt lat="39.99408129508713" lon="9.405267371251455"><ele>867.75</ele><time>2026-04-29T09:46:16.84Z</time></trkpt><trkpt lat="39.994170721398696" lon="9.405165474915773"><ele>869.5</ele><time>2026-04-29T09:46:17.84Z</time></trkpt><trkpt lat="39.994247297608936" lon="9.40504804892452"><ele>871.25</ele><time>2026-04-29T09:46:18.84Z</time></trkpt><trkpt lat="39.994300512696384" lon="9.404931956752968"><ele>873.0</ele><time>2026-04-29T09:46:19.84Z</time></trkpt><trkpt lat="39.9943671251361" lon="9.404805210488648"><ele>874.5999999999999</ele><time>2026-04-29T09:46:20.84Z</time></trkpt><trkpt lat="39.99440813202681" lon="9.40468442558942"><ele>876.1999999999999</ele><time>2026-04-29T09:46:21.84Z</time></trkpt><trkpt lat="39.99445814785099" lon="9.404575368368436"><ele>877.8</ele><time>2026-04-29T09:46:22.84Z</time></trkpt><trkpt lat="39.99450529091077" lon="9.404454791622198"><ele>879.4</ele><time>2026-04-29T09:46:23.84Z</time></trkpt><trkpt lat="39.994551755981306" lon="9.404336994202788"><ele>881.0</ele><time>2026-04-29T09:46:24.84Z</time></trkpt><trkpt lat="39.99460042021578" lon="9.404216281351815"><ele>882.25</ele><time>2026-04-29T09:46:25.84Z</time></trkpt><trkpt lat="39.99465506811548" lon="9.404088233155063"><ele>883.5</ele><time>2026-04-29T09:46:26.84Z</time></trkpt><trkpt lat="39.99472037889288" lon="9.403957943726017"><ele>884.75</ele><time>2026-04-29T09:46:27.84Z</time></trkpt><trkpt lat="39.99479207903144" lon="9.403831966404532"><ele>886.0</ele><time>2026-04-29T09:46:28.84Z</time></trkpt><trkpt lat="39.99485231794798" lon="9.40372353067936"><ele>886.0</ele><time>2026-04-29T09:46:29.84Z</time></trkpt><trkpt lat="39.99492543669128" lon="9.403631964975759"><ele>885.9999999999999</ele><time>2026-04-29T09:46:30.84Z</time></trkpt><trkpt lat="39.9950082634968" lon="9.403581656418352"><ele>885.9999999999999</ele><time>2026-04-29T09:46:31.84Z</time></trkpt><trkpt lat="39.995080761511204" lon="9.403467900393617"><ele>886.0</ele><time>2026-04-29T09:46:32.84Z</time></trkpt><trkpt lat="39.9951496718925" lon="9.403382354438556"><ele>886.0</ele><time>2026-04-29T09:46:33.84Z</time></trkpt><trkpt lat="39.995230426888035" lon="9.403304999577616"><ele>889.3333333333333</ele><time>2026-04-29T09:46:34.84Z</time></trkpt><trkpt lat="39.99537233042139" lon="9.403185223105298"><ele>892.6666666666667</ele><time>2026-04-29T09:46:35.84Z</time></trkpt><trkpt lat="39.99551673166347" lon="9.403073605814267"><ele>896.0</ele><time>2026-04-29T09:46:36.84Z</time></trkpt><trkpt lat="39.99564370491615" lon="9.402984493063295"><ele>896.0</ele><time>2026-04-29T09:46:37.84Z</time></trkpt><trkpt lat="39.995757712349125" lon="9.402908110084967"><ele>895.9999999999999</ele><time>2026-04-29T09:46:38.84Z</time></trkpt><trkpt lat="39.9958502110255" lon="9.402842808542585"><ele>895.9999999999999</ele><time>2026-04-29T09:46:39.841Z</time></trkpt><trkpt lat="39.99592904845655" lon="9.402774007906197"><ele>896.0</ele><time>2026-04-29T09:46:40.843Z</time></trkpt><trkpt lat="39.995999723504426" lon="9.402693707785648"><ele>896.0</ele><time>2026-04-29T09:46:41.844Z</time></trkpt><trkpt lat="39.99607742543376" lon="9.402602562239434"><ele>897.1999999999999</ele><time>2026-04-29T09:46:42.845Z</time></trkpt><trkpt lat="39.99613131002567" lon="9.402482428352286"><ele>898.3999999999999</ele><time>2026-04-29T09:46:43.845Z</time></trkpt><trkpt lat="39.99618431538395" lon="9.40237456579159"><ele>899.6</ele><time>2026-04-29T09:46:44.846Z</time></trkpt><trkpt lat="39.99622202026404" lon="9.402256667148073"><ele>900.8</ele><time>2026-04-29T09:46:45.847Z</time></trkpt><trkpt lat="39.99628470060327" lon="9.402148593347267"><ele>902.0</ele><time>2026-04-29T09:46:46.848Z</time></trkpt><trkpt lat="39.996308712718886" lon="9.402024496502452"><ele>902.0</ele><time>2026-04-29T09:46:47.849Z</time></trkpt><trkpt lat="39.996356871107764" lon="9.40191737860009"><ele>902.0</ele><time>2026-04-29T09:46:48.849Z</time></trkpt><trkpt lat="39.99639367117384" lon="9.401805842310736"><ele>902.0</ele><time>2026-04-29T09:46:49.85Z</time></trkpt><trkpt lat="39.99643187042643" lon="9.401691166363538"><ele>902.0</ele><time>2026-04-29T09:46:50.85Z</time></trkpt><trkpt lat="39.996478563440725" lon="9.401586414752174"><ele>902.0</ele><time>2026-04-29T09:46:51.851Z</time></trkpt><trkpt lat="39.99652478862774" lon="9.401481508533577"><ele>902.0</ele><time>2026-04-29T09:46:52.851Z</time></trkpt><trkpt lat="39.99657181648708" lon="9.401371424871956"><ele>902.0</ele><time>2026-04-29T09:46:53.852Z</time></trkpt><trkpt lat="39.99661828293216" lon="9.401261387296396"><ele>902.0</ele><time>2026-04-29T09:46:54.852Z</time></trkpt><trkpt lat="39.99666648718477" lon="9.401157977514472"><ele>902.0</ele><time>2026-04-29T09:46:55.853Z</time></trkpt><trkpt lat="39.99670572016152" lon="9.401050479890976"><ele>902.0</ele><time>2026-04-29T09:46:56.853Z</time></trkpt><trkpt lat="39.996754154502455" lon="9.400934779007907"><ele>900.2</ele><time>2026-04-29T09:46:57.854Z</time></trkpt><trkpt lat="39.99680504849514" lon="9.40081293762756"><ele>898.4000000000001</ele><time>2026-04-29T09:46:58.854Z</time></trkpt><trkpt lat="39.99685405995705" lon="9.400695887965401"><ele>896.5999999999999</ele><time>2026-04-29T09:46:59.854Z</time></trkpt><trkpt lat="39.99689279852124" lon="9.400566689792882"><ele>894.8</ele><time>2026-04-29T09:47:00.855Z</time></trkpt><trkpt lat="39.99692615935686" lon="9.400431460199673"><ele>893.0</ele><time>2026-04-29T09:47:01.855Z</time></trkpt><trkpt lat="39.99696111762988" lon="9.400288216222489"><ele>897.8</ele><time>2026-04-29T09:47:02.855Z</time></trkpt><trkpt lat="39.99699382543995" lon="9.400156089650826"><ele>902.5999999999999</ele><time>2026-04-29T09:47:03.855Z</time></trkpt><trkpt lat="39.99703399243689" lon="9.400033065928165"><ele>907.4000000000001</ele><time>2026-04-29T09:47:04.856Z</time></trkpt><trkpt lat="39.99708646639058" lon="9.399919113933242"><ele>912.2</ele><time>2026-04-29T09:47:05.856Z</time></trkpt><trkpt lat="39.99715813652939" lon="9.399828417989264"><ele>917.0</ele><time>2026-04-29T09:47:06.856Z</time></trkpt><trkpt lat="39.99725147655132" lon="9.399797288268317"><ele>917.0000000000001</ele><time>2026-04-29T09:47:07.856Z</time></trkpt><trkpt lat="39.997333401539244" lon="9.399781847871365"><ele>917.0</ele><time>2026-04-29T09:47:08.856Z</time></trkpt><trkpt lat="39.99740968684028" lon="9.399768418976572"><ele>917.0</ele><time>2026-04-29T09:47:09.857Z</time></trkpt><trkpt lat="39.9975128351074" lon="9.399768035306439"><ele>917.0</ele><time>2026-04-29T09:47:10.857Z</time></trkpt><trkpt lat="39.99759912451189" lon="9.399731568294014"><ele>917.0000000000001</ele><time>2026-04-29T09:47:11.857Z</time></trkpt><trkpt lat="39.997688365325374" lon="9.39969792272676"><ele>917.0</ele><time>2026-04-29T09:47:12.857Z</time></trkpt><trkpt lat="39.99777034483585" lon="9.399658219158402"><ele>918.0</ele><time>2026-04-29T09:47:13.857Z</time></trkpt><trkpt lat="39.997836193947634" lon="9.399595972891664"><ele>919.0</ele><time>2026-04-29T09:47:14.857Z</time></trkpt><trkpt lat="39.997906476573924" lon="9.399520078163597"><ele>920.0</ele><time>2026-04-29T09:47:15.857Z</time></trkpt><trkpt lat="39.99797926547845" lon="9.399444599150332"><ele>921.0</ele><time>2026-04-29T09:47:16.858Z</time></trkpt><trkpt lat="39.99803614364098" lon="9.399335478784348"><ele>922.0</ele><time>2026-04-29T09:47:17.858Z</time></trkpt><trkpt lat="39.998064173597655" lon="9.399183471023921"><ele>922.0</ele><time>2026-04-29T09:47:18.858Z</time></trkpt><trkpt lat="39.99809398247232" lon="9.399049816096138"><ele>922.0</ele><time>2026-04-29T09:47:19.858Z</time></trkpt><trkpt lat="39.998133887685114" lon="9.398918091108486"><ele>922.0</ele><time>2026-04-29T09:47:20.858Z</time></trkpt><trkpt lat="39.99814696200782" lon="9.398772574719723"><ele>922.0</ele><time>2026-04-29T09:47:21.858Z</time></trkpt><trkpt lat="39.99816839240752" lon="9.398627834980234"><ele>922.0</ele><time>2026-04-29T09:47:22.858Z</time></trkpt><trkpt lat="39.99819467855104" lon="9.398489462754595"><ele>922.6</ele><time>2026-04-29T09:47:23.858Z</time></trkpt><trkpt lat="39.99823270034799" lon="9.398366728507858"><ele>923.2</ele><time>2026-04-29T09:47:24.858Z</time></trkpt><trkpt lat="39.99828176336164" lon="9.398258953455478"><ele>923.8</ele><time>2026-04-29T09:47:25.858Z</time></trkpt><trkpt lat="39.998337855252736" lon="9.398154306242354"><ele>924.4</ele><time>2026-04-29T09:47:26.858Z</time></trkpt><trkpt lat="39.99839861865708" lon="9.39804183001866"><ele>925.0</ele><time>2026-04-29T09:47:27.858Z</time></trkpt><trkpt lat="39.99846417587088" lon="9.397928488327842"><ele>925.0</ele><time>2026-04-29T09:47:28.858Z</time></trkpt><trkpt lat="39.99852738992258" lon="9.397803189037035"><ele>925.0</ele><time>2026-04-29T09:47:29.858Z</time></trkpt><trkpt lat="39.998596962219914" lon="9.397685404573403"><ele>925.0</ele><time>2026-04-29T09:47:30.858Z</time></trkpt><trkpt lat="39.99865388058167" lon="9.397560929712464"><ele>925.0</ele><time>2026-04-29T09:47:31.859Z</time></trkpt><trkpt lat="39.99870529755191" lon="9.397432090807158"><ele>925.0</ele><time>2026-04-29T09:47:32.859Z</time></trkpt><trkpt lat="39.998749721874745" lon="9.397291318098587"><ele>925.0</ele><time>2026-04-29T09:47:33.859Z</time></trkpt><trkpt lat="39.99878904278768" lon="9.397152347840432"><ele>925.0</ele><time>2026-04-29T09:47:34.859Z</time></trkpt><trkpt lat="39.99883989584208" lon="9.397008843171417"><ele>925.0</ele><time>2026-04-29T09:47:35.859Z</time></trkpt><trkpt lat="39.99887765406899" lon="9.396862143732353"><ele>927.6</ele><time>2026-04-29T09:47:36.859Z</time></trkpt><trkpt lat="39.99893064685475" lon="9.396723252332134"><ele>930.2</ele><time>2026-04-29T09:47:37.859Z</time></trkpt><trkpt lat="39.9989793599766" lon="9.396583996814837"><ele>932.8</ele><time>2026-04-29T09:47:38.859Z</time></trkpt><trkpt lat="39.999022080343444" lon="9.396455621597108"><ele>935.4</ele><time>2026-04-29T09:47:39.859Z</time></trkpt><trkpt lat="39.9990702639759" lon="9.396336561669528"><ele>938.0</ele><time>2026-04-29T09:47:40.859Z</time></trkpt><trkpt lat="39.999105582164454" lon="9.396222853343646"><ele>937.4</ele><time>2026-04-29T09:47:41.859Z</time></trkpt><trkpt lat="39.999148601540114" lon="9.396119441082423"><ele>936.8</ele><time>2026-04-29T09:47:42.859Z</time></trkpt><trkpt lat="39.99920696208145" lon="9.396035200723446"><ele>936.2</ele><time>2026-04-29T09:47:43.859Z</time></trkpt><trkpt lat="39.999284992215586" lon="9.395969125310842"><ele>935.6</ele><time>2026-04-29T09:47:44.859Z</time></trkpt><trkpt lat="39.99937420391484" lon="9.395893943158415"><ele>935.0</ele><time>2026-04-29T09:47:45.859Z</time></trkpt><trkpt lat="39.99947189616614" lon="9.395834121434168"><ele>935.0000000000001</ele><time>2026-04-29T09:47:46.859Z</time></trkpt><trkpt lat="39.99956634812065" lon="9.395791654663434"><ele>935.0</ele><time>2026-04-29T09:47:47.859Z</time></trkpt><trkpt lat="39.99964303304924" lon="9.395737271268912"><ele>935.0</ele><time>2026-04-29T09:47:48.859Z</time></trkpt><trkpt lat="39.9997051824065" lon="9.395669992458302"><ele>935.0</ele><time>2026-04-29T09:47:49.859Z</time></trkpt><trkpt lat="39.99975984995585" lon="9.395588641895277"><ele>935.0000000000001</ele><time>2026-04-29T09:47:50.859Z</time></trkpt><trkpt lat="39.9998131363954" lon="9.395485200744991"><ele>935.0</ele><time>2026-04-29T09:47:51.859Z</time></trkpt><trkpt lat="39.999879812686736" lon="9.395359292130232"><ele>938.5</ele><time>2026-04-29T09:47:52.859Z</time></trkpt><trkpt lat="39.99993407566454" lon="9.395231356930541"><ele>942.0</ele><time>2026-04-29T09:47:53.859Z</time></trkpt><trkpt lat="39.99999583207938" lon="9.395094373322156"><ele>945.5</ele><time>2026-04-29T09:47:54.859Z</time></trkpt><trkpt lat="40.0000579039389" lon="9.394950769390789"><ele>949.0</ele><time>2026-04-29T09:47:55.859Z</time></trkpt><trkpt lat="40.00012265392312" lon="9.394812367768646"><ele>949.0</ele><time>2026-04-29T09:47:56.859Z</time></trkpt><trkpt lat="40.00018257925521" lon="9.394674080816415"><ele>949.0</ele><time>2026-04-29T09:47:57.859Z</time></trkpt><trkpt lat="40.00024307365594" lon="9.394535320082726"><ele>949.0</ele><time>2026-04-29T09:47:58.858Z</time></trkpt><trkpt lat="40.00030731515744" lon="9.39439868587921"><ele>949.0</ele><time>2026-04-29T09:47:59.857Z</time></trkpt><trkpt lat="40.00037572593483" lon="9.39425921710024"><ele>949.25</ele><time>2026-04-29T09:48:00.857Z</time></trkpt><trkpt lat="40.000440651210326" lon="9.394124089071415"><ele>949.5</ele><time>2026-04-29T09:48:01.858Z</time></trkpt><trkpt lat="40.00050183306811" lon="9.394003955124239"><ele>949.75</ele><time>2026-04-29T09:48:02.857Z</time></trkpt><trkpt lat="40.000578902615416" lon="9.39388699026641"><ele>950.0</ele><time>2026-04-29T09:48:03.857Z</time></trkpt><trkpt lat="40.000671346154014" lon="9.393772573855495"><ele>950.5</ele><time>2026-04-29T09:48:04.858Z</time></trkpt><trkpt lat="40.00078678737378" lon="9.393670406065606"><ele>951.0</ele><time>2026-04-29T09:48:05.858Z</time></trkpt><trkpt lat="40.000906270270185" lon="9.39357852675335"><ele>951.5</ele><time>2026-04-29T09:48:06.858Z</time></trkpt><trkpt lat="40.00104159986331" lon="9.393473291933194"><ele>952.0</ele><time>2026-04-29T09:48:07.857Z</time></trkpt><trkpt lat="40.00117643985982" lon="9.393360567735941"><ele>952.0</ele><time>2026-04-29T09:48:08.858Z</time></trkpt><trkpt lat="40.00130477846586" lon="9.393259130703715"><ele>952.0</ele><time>2026-04-29T09:48:09.858Z</time></trkpt><trkpt lat="40.001425063019695" lon="9.393162777799368"><ele>952.0</ele><time>2026-04-29T09:48:10.857Z</time></trkpt><trkpt lat="40.00154690108026" lon="9.393063457522928"><ele>952.0</ele><time>2026-04-29T09:48:11.857Z</time></trkpt><trkpt lat="40.00166999883055" lon="9.39295891100768"><ele>955.25</ele><time>2026-04-29T09:48:12.857Z</time></trkpt><trkpt lat="40.00178828410509" lon="9.392858821518043"><ele>958.5</ele><time>2026-04-29T09:48:13.857Z</time></trkpt><trkpt lat="40.00189632000019" lon="9.392784732110565"><ele>961.75</ele><time>2026-04-29T09:48:14.857Z</time></trkpt><trkpt lat="40.00201084468656" lon="9.392744160925858"><ele>965.0</ele><time>2026-04-29T09:48:15.857Z</time></trkpt><trkpt lat="40.002128983195064" lon="9.392705006001384"><ele>965.0</ele><time>2026-04-29T09:48:16.857Z</time></trkpt><trkpt lat="40.002246862173024" lon="9.392660006859614"><ele>965.0</ele><time>2026-04-29T09:48:17.857Z</time></trkpt><trkpt lat="40.00236858155683" lon="9.392612631715613"><ele>965.0</ele><time>2026-04-29T09:48:18.857Z</time></trkpt><trkpt lat="40.002488174343185" lon="9.392553960900171"><ele>965.0</ele><time>2026-04-29T09:48:19.857Z</time></trkpt><trkpt lat="40.00259478205028" lon="9.39249473226685"><ele>965.0</ele><time>2026-04-29T09:48:20.857Z</time></trkpt><trkpt lat="40.00270619789886" lon="9.392406485925587"><ele>965.0</ele><time>2026-04-29T09:48:21.857Z</time></trkpt><trkpt lat="40.00280481394887" lon="9.392291063902247"><ele>965.0</ele><time>2026-04-29T09:48:22.857Z</time></trkpt><trkpt lat="40.00288079252363" lon="9.392182658811308"><ele>965.0</ele><time>2026-04-29T09:48:23.857Z</time></trkpt><trkpt lat="40.002965449480755" lon="9.392052482654746"><ele>965.25</ele><time>2026-04-29T09:48:24.857Z</time></trkpt><trkpt lat="40.00305345142206" lon="9.391904476446763"><ele>965.5</ele><time>2026-04-29T09:48:25.857Z</time></trkpt><trkpt lat="40.003136214350675" lon="9.391746452371539"><ele>965.75</ele><time>2026-04-29T09:48:26.857Z</time></trkpt><trkpt lat="40.003209828294466" lon="9.391573550639025"><ele>966.0</ele><time>2026-04-29T09:48:27.857Z</time></trkpt><trkpt lat="40.00328547602273" lon="9.391378804713387"><ele>966.0</ele><time>2026-04-29T09:48:28.857Z</time></trkpt><trkpt lat="40.003359789534095" lon="9.391177785300066"><ele>966.0</ele><time>2026-04-29T09:48:29.857Z</time></trkpt><trkpt lat="40.003423210939985" lon="9.39096479365352"><ele>966.0</ele><time>2026-04-29T09:48:30.857Z</time></trkpt><trkpt lat="40.003486927292236" lon="9.390748452709605"><ele>966.0</ele><time>2026-04-29T09:48:31.857Z</time></trkpt><trkpt lat="40.003553751408674" lon="9.39052960968963"><ele>966.0</ele><time>2026-04-29T09:48:32.857Z</time></trkpt><trkpt lat="40.00361451160403" lon="9.39030244236009"><ele>966.0</ele><time>2026-04-29T09:48:33.857Z</time></trkpt><trkpt lat="40.00369030774708" lon="9.3900837804416"><ele>967.0</ele><time>2026-04-29T09:48:34.857Z</time></trkpt><trkpt lat="40.003761456727105" lon="9.389864926448883"><ele>968.0</ele><time>2026-04-29T09:48:35.857Z</time></trkpt><trkpt lat="40.00382817001727" lon="9.389653985539777"><ele>969.0</ele><time>2026-04-29T09:48:36.857Z</time></trkpt><trkpt lat="40.00389458638802" lon="9.389450785077928"><ele>970.0</ele><time>2026-04-29T09:48:37.857Z</time></trkpt><trkpt lat="40.00395729224519" lon="9.389243665284509"><ele>971.0</ele><time>2026-04-29T09:48:38.857Z</time></trkpt><trkpt lat="40.00402429004128" lon="9.389056469076733"><ele>972.0</ele><time>2026-04-29T09:48:39.857Z</time></trkpt><trkpt lat="40.00409275075731" lon="9.388864794666436"><ele>975.0</ele><time>2026-04-29T09:48:40.857Z</time></trkpt><trkpt lat="40.00416921253392" lon="9.388693753896149"><ele>978.0</ele><time>2026-04-29T09:48:41.857Z</time></trkpt><trkpt lat="40.00425227266609" lon="9.388519383417552"><ele>981.0</ele><time>2026-04-29T09:48:42.857Z</time></trkpt><trkpt lat="40.004350168027656" lon="9.388362961094689"><ele>981.0</ele><time>2026-04-29T09:48:43.857Z</time></trkpt><trkpt lat="40.00445399530917" lon="9.388208980702146"><ele>981.0</ele><time>2026-04-29T09:48:44.857Z</time></trkpt><trkpt lat="40.004569374323005" lon="9.388054247806052"><ele>981.0</ele><time>2026-04-29T09:48:45.857Z</time></trkpt><trkpt lat="40.00468208693512" lon="9.387898754229719"><ele>981.6666666666667</ele><time>2026-04-29T09:48:46.857Z</time></trkpt><trkpt lat="40.004793335570774" lon="9.38773834583711"><ele>982.3333333333334</ele><time>2026-04-29T09:48:47.857Z</time></trkpt><trkpt lat="40.00490292086987" lon="9.38757918954906"><ele>983.0</ele><time>2026-04-29T09:48:48.857Z</time></trkpt><trkpt lat="40.00501583969332" lon="9.387420976483185"><ele>982.6666666666667</ele><time>2026-04-29T09:48:49.857Z</time></trkpt><trkpt lat="40.00512179118401" lon="9.38726616388989"><ele>982.3333333333333</ele><time>2026-04-29T09:48:50.857Z</time></trkpt><trkpt lat="40.005227550470345" lon="9.387110402625282"><ele>982.0</ele><time>2026-04-29T09:48:51.857Z</time></trkpt><trkpt lat="40.00533363175877" lon="9.38695283729308"><ele>982.0</ele><time>2026-04-29T09:48:52.857Z</time></trkpt><trkpt lat="40.00544471623959" lon="9.386787087776582"><ele>982.0</ele><time>2026-04-29T09:48:53.857Z</time></trkpt><trkpt lat="40.00555151714595" lon="9.386625362801539"><ele>982.0</ele><time>2026-04-29T09:48:54.857Z</time></trkpt><trkpt lat="40.00567242491181" lon="9.386501637151072"><ele>982.0</ele><time>2026-04-29T09:48:55.857Z</time></trkpt><trkpt lat="40.00578105653925" lon="9.386400517850664"><ele>982.0</ele><time>2026-04-29T09:48:56.857Z</time></trkpt><trkpt lat="40.00589674856079" lon="9.386354676027402"><ele>982.0</ele><time>2026-04-29T09:48:57.857Z</time></trkpt><trkpt lat="40.006023808989696" lon="9.38632681524157"><ele>982.0</ele><time>2026-04-29T09:48:58.857Z</time></trkpt><trkpt lat="40.006160352667166" lon="9.386304240683968"><ele>983.75</ele><time>2026-04-29T09:48:59.857Z</time></trkpt><trkpt lat="40.006305021871526" lon="9.386291836015895"><ele>985.5</ele><time>2026-04-29T09:49:00.857Z</time></trkpt><trkpt lat="40.006447105353146" lon="9.386277476311855"><ele>987.25</ele><time>2026-04-29T09:49:01.857Z</time></trkpt><trkpt lat="40.00657664949571" lon="9.386274231339481"><ele>989.0</ele><time>2026-04-29T09:49:02.857Z</time></trkpt><trkpt lat="40.006698251576665" lon="9.386302318563052"><ele>989.75</ele><time>2026-04-29T09:49:03.857Z</time></trkpt><trkpt lat="40.006799106679125" lon="9.386351935218586"><ele>990.5</ele><time>2026-04-29T09:49:04.857Z</time></trkpt><trkpt lat="40.006878442807896" lon="9.386443729811157"><ele>991.25</ele><time>2026-04-29T09:49:05.857Z</time></trkpt><trkpt lat="40.006959813068555" lon="9.386550986209944"><ele>992.0</ele><time>2026-04-29T09:49:06.857Z</time></trkpt><trkpt lat="40.0070442035006" lon="9.386685147654951"><ele>992.0</ele><time>2026-04-29T09:49:07.857Z</time></trkpt><trkpt lat="40.00713626920766" lon="9.386811360328835"><ele>992.0</ele><time>2026-04-29T09:49:08.857Z</time></trkpt><trkpt lat="40.00723106859041" lon="9.386925371262851"><ele>992.0</ele><time>2026-04-29T09:49:09.857Z</time></trkpt><trkpt lat="40.00732976271209" lon="9.387028461685956"><ele>992.0</ele><time>2026-04-29T09:49:10.857Z</time></trkpt><trkpt lat="40.007442851820024" lon="9.387114414585048"><ele>993.0</ele><time>2026-04-29T09:49:11.857Z</time></trkpt><trkpt lat="40.00754835878047" lon="9.38723392311565"><ele>994.0</ele><time>2026-04-29T09:49:12.857Z</time></trkpt><trkpt lat="40.007665393521194" lon="9.387335915859575"><ele>995.0</ele><time>2026-04-29T09:49:13.857Z</time></trkpt><trkpt lat="40.00777617910205" lon="9.387435592273928"><ele>996.0</ele><time>2026-04-29T09:49:14.857Z</time></trkpt><trkpt lat="40.00787104467717" lon="9.387522364413607"><ele>996.0</ele><time>2026-04-29T09:49:15.857Z</time></trkpt><trkpt lat="40.0079536144811" lon="9.387598885589496"><ele>996.0</ele><time>2026-04-29T09:49:16.857Z</time></trkpt><trkpt lat="40.00802259859576" lon="9.387655141054502"><ele>996.0</ele><time>2026-04-29T09:49:17.857Z</time></trkpt><trkpt lat="40.00808833367135" lon="9.387721451256931"><ele>996.0</ele><time>2026-04-29T09:49:18.857Z</time></trkpt><trkpt lat="40.00815456994299" lon="9.38778762644291"><ele>996.0</ele><time>2026-04-29T09:49:19.857Z</time></trkpt><trkpt lat="40.00822532100825" lon="9.387871550981588"><ele>996.0</ele><time>2026-04-29T09:49:20.857Z</time></trkpt><trkpt lat="40.00828772645037" lon="9.387961625121783"><ele>995.4</ele><time>2026-04-29T09:49:21.857Z</time></trkpt><trkpt lat="40.008340000438984" lon="9.388066270562398"><ele>994.8</ele><time>2026-04-29T09:49:22.857Z</time></trkpt><trkpt lat="40.00837580865608" lon="9.388182854517696"><ele>994.1999999999999</ele><time>2026-04-29T09:49:23.857Z</time></trkpt><trkpt lat="40.00841635587836" lon="9.388301048493386"><ele>993.5999999999999</ele><time>2026-04-29T09:49:24.857Z</time></trkpt><trkpt lat="40.00847074098037" lon="9.388424085395245"><ele>993.0</ele><time>2026-04-29T09:49:25.857Z</time></trkpt><trkpt lat="40.00853536113932" lon="9.388515874787226"><ele>993.0</ele><time>2026-04-29T09:49:26.857Z</time></trkpt><trkpt lat="40.00861266288037" lon="9.388588921957565"><ele>993.0</ele><time>2026-04-29T09:49:27.857Z</time></trkpt><trkpt lat="40.008708131840656" lon="9.388646631391167"><ele>993.0</ele><time>2026-04-29T09:49:28.857Z</time></trkpt><trkpt lat="40.00881190808254" lon="9.388681158329465"><ele>993.0</ele><time>2026-04-29T09:49:29.857Z</time></trkpt><trkpt lat="40.0089118635582" lon="9.38872257050596"><ele>993.0</ele><time>2026-04-29T09:49:30.857Z</time></trkpt><trkpt lat="40.009008446980346" lon="9.388777984553816"><ele>990.4</ele><time>2026-04-29T09:49:31.857Z</time></trkpt><trkpt lat="40.00909534269506" lon="9.388871932215318"><ele>987.8</ele><time>2026-04-29T09:49:32.857Z</time></trkpt><trkpt lat="40.009178081878616" lon="9.38896824230885"><ele>985.2</ele><time>2026-04-29T09:49:33.857Z</time></trkpt><trkpt lat="40.00926435984028" lon="9.389055767547143"><ele>982.6</ele><time>2026-04-29T09:49:34.857Z</time></trkpt><trkpt lat="40.00935953426961" lon="9.389125124043042"><ele>980.0</ele><time>2026-04-29T09:49:35.857Z</time></trkpt><trkpt lat="40.00944937754068" lon="9.389165749065826"><ele>979.75</ele><time>2026-04-29T09:49:36.857Z</time></trkpt><trkpt lat="40.009560873951315" lon="9.3891723243626"><ele>979.5</ele><time>2026-04-29T09:49:37.857Z</time></trkpt><trkpt lat="40.00968877363763" lon="9.389153872647869"><ele>979.25</ele><time>2026-04-29T09:49:38.857Z</time></trkpt><trkpt lat="40.009816470735004" lon="9.38910501779801"><ele>979.0</ele><time>2026-04-29T09:49:39.857Z</time></trkpt><trkpt lat="40.00994481913493" lon="9.389076399940258"><ele>978.5</ele><time>2026-04-29T09:49:40.857Z</time></trkpt><trkpt lat="40.01006447582461" lon="9.389039500346689"><ele>978.0</ele><time>2026-04-29T09:49:41.857Z</time></trkpt><trkpt lat="40.01021325239909" lon="9.389006560570383"><ele>977.5</ele><time>2026-04-29T09:49:42.857Z</time></trkpt><trkpt lat="40.010330627563356" lon="9.388995631143265"><ele>977.0</ele><time>2026-04-29T09:49:44.857Z</time></trkpt><trkpt lat="40.01042936008431" lon="9.38903073121051"><ele>977.0</ele><time>2026-04-29T09:49:45.857Z</time></trkpt><trkpt lat="40.01051710301282" lon="9.389079652572086"><ele>977.0</ele><time>2026-04-29T09:49:46.857Z</time></trkpt><trkpt lat="40.01058285744431" lon="9.389176817188785"><ele>977.0</ele><time>2026-04-29T09:49:47.857Z</time></trkpt><trkpt lat="40.01065708665967" lon="9.389284601937014"><ele>977.0</ele><time>2026-04-29T09:49:48.857Z</time></trkpt><trkpt lat="40.01074108077861" lon="9.38939130157505"><ele>977.0</ele><time>2026-04-29T09:49:49.857Z</time></trkpt><trkpt lat="40.01083123507772" lon="9.389500224937654"><ele>976.6</ele><time>2026-04-29T09:49:50.857Z</time></trkpt><trkpt lat="40.010913789962686" lon="9.389598634612373"><ele>976.2</ele><time>2026-04-29T09:49:51.857Z</time></trkpt><trkpt lat="40.010984644740944" lon="9.389695865121807"><ele>975.8</ele><time>2026-04-29T09:49:52.857Z</time></trkpt><trkpt lat="40.01103735876829" lon="9.389794375737614"><ele>975.4</ele><time>2026-04-29T09:49:53.857Z</time></trkpt><trkpt lat="40.01106748916771" lon="9.389905049938847"><ele>975.0</ele><time>2026-04-29T09:49:54.857Z</time></trkpt><trkpt lat="40.01108999474164" lon="9.390037134128962"><ele>970.75</ele><time>2026-04-29T09:49:55.857Z</time></trkpt><trkpt lat="40.01111271668747" lon="9.390183716681765"><ele>966.5</ele><time>2026-04-29T09:49:56.857Z</time></trkpt><trkpt lat="40.011135375459695" lon="9.390338441477732"><ele>962.25</ele><time>2026-04-29T09:49:57.857Z</time></trkpt><trkpt lat="40.011168765375224" lon="9.390493285414687"><ele>958.0</ele><time>2026-04-29T09:49:58.857Z</time></trkpt><trkpt lat="40.011209856213654" lon="9.390644477426932"><ele>957.75</ele><time>2026-04-29T09:49:59.857Z</time></trkpt><trkpt lat="40.0112717774449" lon="9.3907995755198"><ele>957.5</ele><time>2026-04-29T09:50:00.857Z</time></trkpt><trkpt lat="40.01135173654198" lon="9.390929438795268"><ele>957.25</ele><time>2026-04-29T09:50:01.857Z</time></trkpt><trkpt lat="40.01143252358695" lon="9.391062139918715"><ele>957.0</ele><time>2026-04-29T09:50:02.857Z</time></trkpt><trkpt lat="40.011525797280285" lon="9.39118346498104"><ele>957.0</ele><time>2026-04-29T09:50:03.857Z</time></trkpt><trkpt lat="40.01162620155663" lon="9.391285723374653"><ele>957.0</ele><time>2026-04-29T09:50:04.856Z</time></trkpt><trkpt lat="40.011735804776066" lon="9.391372461118218"><ele>957.0</ele><time>2026-04-29T09:50:05.856Z</time></trkpt><trkpt lat="40.01186214744486" lon="9.391433244979252"><ele>957.0</ele><time>2026-04-29T09:50:06.856Z</time></trkpt><trkpt lat="40.01198671298249" lon="9.391479552466858"><ele>958.25</ele><time>2026-04-29T09:50:07.856Z</time></trkpt><trkpt lat="40.0121153942997" lon="9.391499547898396"><ele>959.5</ele><time>2026-04-29T09:50:08.855Z</time></trkpt><trkpt lat="40.01224317005187" lon="9.391523492434391"><ele>960.75</ele><time>2026-04-29T09:50:09.855Z</time></trkpt><trkpt lat="40.012371620323506" lon="9.39155810355227"><ele>962.0</ele><time>2026-04-29T09:50:10.855Z</time></trkpt><trkpt lat="40.01248812065935" lon="9.391575231764387"><ele>959.0</ele><time>2026-04-29T09:50:11.855Z</time></trkpt><trkpt lat="40.01259671583605" lon="9.391597861204795"><ele>956.0</ele><time>2026-04-29T09:50:12.855Z</time></trkpt><trkpt lat="40.01269215265074" lon="9.391618757472182"><ele>953.0</ele><time>2026-04-29T09:50:13.856Z</time></trkpt><trkpt lat="40.012779836126704" lon="9.39165532615634"><ele>950.0</ele><time>2026-04-29T09:50:14.856Z</time></trkpt><trkpt lat="40.012867449460266" lon="9.391726068862553"><ele>947.0</ele><time>2026-04-29T09:50:15.856Z</time></trkpt><trkpt lat="40.01294052651067" lon="9.391845331800482"><ele>947.0</ele><time>2026-04-29T09:50:16.856Z</time></trkpt><trkpt lat="40.013033633790414" lon="9.391961410848054"><ele>947.0</ele><time>2026-04-29T09:50:17.856Z</time></trkpt><trkpt lat="40.01313318381007" lon="9.392062892951927"><ele>947.0</ele><time>2026-04-29T09:50:18.856Z</time></trkpt><trkpt lat="40.01322376213588" lon="9.392182303568408"><ele>947.0</ele><time>2026-04-29T09:50:19.856Z</time></trkpt><trkpt lat="40.01329958307662" lon="9.392316340144653"><ele>944.0</ele><time>2026-04-29T09:50:20.856Z</time></trkpt><trkpt lat="40.01338349434337" lon="9.392441298504847"><ele>941.0</ele><time>2026-04-29T09:50:21.856Z</time></trkpt><trkpt lat="40.01346298297878" lon="9.39257525988187"><ele>938.0</ele><time>2026-04-29T09:50:22.856Z</time></trkpt><trkpt lat="40.01352609342887" lon="9.392685896629693"><ele>935.0</ele><time>2026-04-29T09:50:23.856Z</time></trkpt><trkpt lat="40.013585736080344" lon="9.392796317614343"><ele>935.0</ele><time>2026-04-29T09:50:24.856Z</time></trkpt><trkpt lat="40.01362708450879" lon="9.39290707947864"><ele>935.0</ele><time>2026-04-29T09:50:25.856Z</time></trkpt><trkpt lat="40.013652886389124" lon="9.393035417436634"><ele>935.0</ele><time>2026-04-29T09:50:26.856Z</time></trkpt><trkpt lat="40.01363957944509" lon="9.393188932432023"><ele>935.0</ele><time>2026-04-29T09:50:27.856Z</time></trkpt><trkpt lat="40.01363866717501" lon="9.393324770424847"><ele>935.0</ele><time>2026-04-29T09:50:28.856Z</time></trkpt><trkpt lat="40.013638667173616" lon="9.393476500320594"><ele>935.5</ele><time>2026-04-29T09:50:29.856Z</time></trkpt><trkpt lat="40.013638667165985" lon="9.39362046524711"><ele>936.0</ele><time>2026-04-29T09:50:30.856Z</time></trkpt><trkpt lat="40.01365243755322" lon="9.393778404089323"><ele>936.5</ele><time>2026-04-29T09:50:31.856Z</time></trkpt><trkpt lat="40.01363156463872" lon="9.393950093610698"><ele>937.0</ele><time>2026-04-29T09:50:32.856Z</time></trkpt><trkpt lat="40.01362472884504" lon="9.394119809027703"><ele>935.75</ele><time>2026-04-29T09:50:33.856Z</time></trkpt><trkpt lat="40.01361238465163" lon="9.39430338104291"><ele>934.5</ele><time>2026-04-29T09:50:34.856Z</time></trkpt><trkpt lat="40.01359389074186" lon="9.394479453699425"><ele>933.25</ele><time>2026-04-29T09:50:35.856Z</time></trkpt><trkpt lat="40.01356531046013" lon="9.394649626074326"><ele>932.0</ele><time>2026-04-29T09:50:36.856Z</time></trkpt><trkpt lat="40.0135400448463" lon="9.394822863499519"><ele>929.75</ele><time>2026-04-29T09:50:37.856Z</time></trkpt><trkpt lat="40.01351807844769" lon="9.394995968303599"><ele>927.5</ele><time>2026-04-29T09:50:38.856Z</time></trkpt><trkpt lat="40.013496439651504" lon="9.395165943009372"><ele>925.25</ele><time>2026-04-29T09:50:39.856Z</time></trkpt><trkpt lat="40.01348008819766" lon="9.395331728414849"><ele>923.0</ele><time>2026-04-29T09:50:40.856Z</time></trkpt><trkpt lat="40.01346624903261" lon="9.395481312884781"><ele>921.8</ele><time>2026-04-29T09:50:41.856Z</time></trkpt><trkpt lat="40.013461914675275" lon="9.395622138624349"><ele>920.5999999999999</ele><time>2026-04-29T09:50:42.856Z</time></trkpt><trkpt lat="40.01346968944588" lon="9.395734645502069"><ele>919.4000000000001</ele><time>2026-04-29T09:50:43.856Z</time></trkpt><trkpt lat="40.01350270179398" lon="9.395864703698422"><ele>918.2</ele><time>2026-04-29T09:50:44.856Z</time></trkpt><trkpt lat="40.013545887556724" lon="9.396003007848208"><ele>917.0</ele><time>2026-04-29T09:50:45.856Z</time></trkpt><trkpt lat="40.01360498150354" lon="9.39613491816769"><ele>917.0</ele><time>2026-04-29T09:50:46.856Z</time></trkpt><trkpt lat="40.013670133471464" lon="9.396275423957283"><ele>917.0</ele><time>2026-04-29T09:50:47.856Z</time></trkpt><trkpt lat="40.01374129794316" lon="9.396414207371123"><ele>917.0</ele><time>2026-04-29T09:50:48.856Z</time></trkpt><trkpt lat="40.013782996756746" lon="9.396555413226807"><ele>917.0</ele><time>2026-04-29T09:50:49.856Z</time></trkpt><trkpt lat="40.01381648819858" lon="9.396687249341607"><ele>917.75</ele><time>2026-04-29T09:50:50.856Z</time></trkpt><trkpt lat="40.01384017603093" lon="9.396835170516955"><ele>918.5</ele><time>2026-04-29T09:50:51.856Z</time></trkpt><trkpt lat="40.01386614754796" lon="9.397011826788507"><ele>919.25</ele><time>2026-04-29T09:50:52.856Z</time></trkpt><trkpt lat="40.01390198693233" lon="9.39719617337082"><ele>920.0</ele><time>2026-04-29T09:50:53.856Z</time></trkpt><trkpt lat="40.01388726465369" lon="9.397375333361737"><ele>917.75</ele><time>2026-04-29T09:50:54.856Z</time></trkpt><trkpt lat="40.01387356573167" lon="9.397564608977556"><ele>915.5</ele><time>2026-04-29T09:50:55.856Z</time></trkpt><trkpt lat="40.013845744401735" lon="9.397752395724387"><ele>913.25</ele><time>2026-04-29T09:50:56.856Z</time></trkpt><trkpt lat="40.01381561224238" lon="9.39794486471842"><ele>911.0</ele><time>2026-04-29T09:50:57.856Z</time></trkpt><trkpt lat="40.01380223018297" lon="9.39813543442876"><ele>906.75</ele><time>2026-04-29T09:50:58.856Z</time></trkpt><trkpt lat="40.01380232784957" lon="9.398317375677244"><ele>902.5</ele><time>2026-04-29T09:50:59.856Z</time></trkpt><trkpt lat="40.01381313380704" lon="9.398502710495142"><ele>898.25</ele><time>2026-04-29T09:51:00.856Z</time></trkpt><trkpt lat="40.01384228173527" lon="9.398694957673927"><ele>894.0</ele><time>2026-04-29T09:51:01.856Z</time></trkpt><trkpt lat="40.01385253766886" lon="9.398888283404602"><ele>891.5</ele><time>2026-04-29T09:51:02.856Z</time></trkpt><trkpt lat="40.01385038508093" lon="9.399065594720188"><ele>889.0</ele><time>2026-04-29T09:51:03.856Z</time></trkpt><trkpt lat="40.01386165529433" lon="9.399254781126782"><ele>886.5</ele><time>2026-04-29T09:51:04.856Z</time></trkpt><trkpt lat="40.01386542546006" lon="9.399416997079294"><ele>884.0</ele><time>2026-04-29T09:51:05.856Z</time></trkpt><trkpt lat="40.013878230635136" lon="9.399590220803692"><ele>883.0</ele><time>2026-04-29T09:51:06.856Z</time></trkpt><trkpt lat="40.01389821087161" lon="9.39973125157978"><ele>882.0000000000001</ele><time>2026-04-29T09:51:07.856Z</time></trkpt><trkpt lat="40.01392072819247" lon="9.399851712354913"><ele>881.0000000000001</ele><time>2026-04-29T09:51:08.856Z</time></trkpt><trkpt lat="40.01394602558618" lon="9.399964326773809"><ele>880.0</ele><time>2026-04-29T09:51:09.856Z</time></trkpt><trkpt lat="40.014004542231575" lon="9.400046030353503"><ele>879.0</ele><time>2026-04-29T09:51:10.856Z</time></trkpt><trkpt lat="40.01408652431089" lon="9.400089317401319"><ele>879.2</ele><time>2026-04-29T09:51:11.856Z</time></trkpt><trkpt lat="40.014173540805984" lon="9.40014534058861"><ele>879.4000000000001</ele><time>2026-04-29T09:51:12.856Z</time></trkpt><trkpt lat="40.01427387544975" lon="9.400179600093866"><ele>879.6</ele><time>2026-04-29T09:51:13.856Z</time></trkpt><trkpt lat="40.01437985309744" lon="9.400249584486213"><ele>879.8</ele><time>2026-04-29T09:51:14.856Z</time></trkpt><trkpt lat="40.01449642146681" lon="9.400285310695057"><ele>880.0</ele><time>2026-04-29T09:51:15.856Z</time></trkpt><trkpt lat="40.014613131148515" lon="9.400339563151478"><ele>880.0</ele><time>2026-04-29T09:51:16.856Z</time></trkpt><trkpt lat="40.01473930056749" lon="9.400389585998028"><ele>880.0</ele><time>2026-04-29T09:51:17.856Z</time></trkpt><trkpt lat="40.0148456259918" lon="9.40043154261649"><ele>880.0</ele><time>2026-04-29T09:51:18.856Z</time></trkpt><trkpt lat="40.01493553168385" lon="9.400460833209593"><ele>880.0</ele><time>2026-04-29T09:51:19.856Z</time></trkpt><trkpt lat="40.01500753916859" lon="9.400471579851995"><ele>880.0</ele><time>2026-04-29T09:51:20.856Z</time></trkpt><trkpt lat="40.01509405286379" lon="9.400387965036705"><ele>880.0</ele><time>2026-04-29T09:51:22.856Z</time></trkpt><trkpt lat="40.01510912612883" lon="9.400302530163886"><ele>880.0</ele><time>2026-04-29T09:51:23.856Z</time></trkpt><trkpt lat="40.01511181657001" lon="9.400209298367875"><ele>880.0</ele><time>2026-04-29T09:51:24.856Z</time></trkpt><trkpt lat="40.015044358886115" lon="9.400030977953687"><ele>880.0</ele><time>2026-04-29T09:51:26.856Z</time></trkpt><trkpt lat="40.01498772996209" lon="9.399941205504918"><ele>880.0</ele><time>2026-04-29T09:51:27.856Z</time></trkpt><trkpt lat="40.014933146226326" lon="9.399864454193732"><ele>880.0</ele><time>2026-04-29T09:51:28.856Z</time></trkpt><trkpt lat="40.01477170944492" lon="9.399905885549593"><ele>880.0</ele><time>2026-04-29T09:51:29.856Z</time></trkpt><trkpt lat="40.01467601355026" lon="9.399887153464604"><ele>880.0</ele><time>2026-04-29T09:51:30.856Z</time></trkpt><trkpt lat="40.01457360535268" lon="9.399852555976434"><ele>880.0</ele><time>2026-04-29T09:51:31.856Z</time></trkpt><trkpt lat="40.0144933493495" lon="9.399817694201118"><ele>880.0</ele><time>2026-04-29T09:51:32.856Z</time></trkpt><trkpt lat="40.014412546916" lon="9.399781775671041"><ele>880.0</ele><time>2026-04-29T09:51:33.856Z</time></trkpt><trkpt lat="40.01434478011449" lon="9.399751042846157"><ele>880.0</ele><time>2026-04-29T09:51:34.856Z</time></trkpt><trkpt lat="40.01433884605493" lon="9.399559704285945"><ele>880.0</ele><time>2026-04-29T09:51:35.856Z</time></trkpt><trkpt lat="40.014320740824736" lon="9.399414792572827"><ele>880.0</ele><time>2026-04-29T09:51:36.856Z</time></trkpt><trkpt lat="40.014310992992904" lon="9.39926168510146"><ele>880.0</ele><time>2026-04-29T09:51:37.856Z</time></trkpt><trkpt lat="40.014307611746574" lon="9.399082662855973"><ele>880.0</ele><time>2026-04-29T09:51:38.856Z</time></trkpt><trkpt lat="40.01430063443789" lon="9.398888280374484"><ele>880.0</ele><time>2026-04-29T09:51:39.856Z</time></trkpt><trkpt lat="40.01429178148481" lon="9.398685078151052"><ele>880.0</ele><time>2026-04-29T09:51:40.856Z</time></trkpt><trkpt lat="40.0142839763013" lon="9.39847583422285"><ele>880.0</ele><time>2026-04-29T09:51:41.856Z</time></trkpt><trkpt lat="40.014268058230456" lon="9.398263215369147"><ele>880.0</ele><time>2026-04-29T09:51:42.856Z</time></trkpt><trkpt lat="40.014256071973605" lon="9.39803972099867"><ele>880.0</ele><time>2026-04-29T09:51:43.856Z</time></trkpt><trkpt lat="40.01424402743155" lon="9.397801558080497"><ele>880.0</ele><time>2026-04-29T09:51:44.856Z</time></trkpt><trkpt lat="40.01423579943226" lon="9.397572099976118"><ele>880.0</ele><time>2026-04-29T09:51:45.856Z</time></trkpt><trkpt lat="40.0142232869045" lon="9.397337086187406"><ele>880.0</ele><time>2026-04-29T09:51:46.856Z</time></trkpt><trkpt lat="40.014213409140744" lon="9.39710270690384"><ele>881.3333333333333</ele><time>2026-04-29T09:51:47.856Z</time></trkpt><trkpt lat="40.014207531921215" lon="9.396868055298796"><ele>882.6666666666667</ele><time>2026-04-29T09:51:48.856Z</time></trkpt><trkpt lat="40.01420006001256" lon="9.396628378292757"><ele>884.0</ele><time>2026-04-29T09:51:49.856Z</time></trkpt><trkpt lat="40.014192730076715" lon="9.396389490916349"><ele>884.0</ele><time>2026-04-29T09:51:50.856Z</time></trkpt><trkpt lat="40.014197637031856" lon="9.396155722466803"><ele>884.0</ele><time>2026-04-29T09:51:51.856Z</time></trkpt><trkpt lat="40.01420711112634" lon="9.395913780723006"><ele>884.0</ele><time>2026-04-29T09:51:52.856Z</time></trkpt><trkpt lat="40.01422370298391" lon="9.395676442171075"><ele>886.3333333333334</ele><time>2026-04-29T09:51:53.856Z</time></trkpt><trkpt lat="40.01424544794249" lon="9.395447506026338"><ele>888.6666666666667</ele><time>2026-04-29T09:51:54.856Z</time></trkpt><trkpt lat="40.0142753603536" lon="9.395214177142686"><ele>891.0</ele><time>2026-04-29T09:51:55.856Z</time></trkpt><trkpt lat="40.014311329912424" lon="9.394987171442223"><ele>891.0</ele><time>2026-04-29T09:51:56.856Z</time></trkpt><trkpt lat="40.014360041365144" lon="9.394771179250402"><ele>891.0</ele><time>2026-04-29T09:51:57.856Z</time></trkpt><trkpt lat="40.014429225448175" lon="9.394564595329804"><ele>891.0</ele><time>2026-04-29T09:51:58.856Z</time></trkpt><trkpt lat="40.014485889826695" lon="9.394359256668595"><ele>893.3333333333333</ele><time>2026-04-29T09:51:59.856Z</time></trkpt><trkpt lat="40.01456112603927" lon="9.394156661664015"><ele>895.6666666666666</ele><time>2026-04-29T09:52:00.856Z</time></trkpt><trkpt lat="40.014638549271865" lon="9.393963596581242"><ele>898.0</ele><time>2026-04-29T09:52:01.856Z</time></trkpt><trkpt lat="40.01472548932144" lon="9.393770127185274"><ele>899.6666666666666</ele><time>2026-04-29T09:52:02.856Z</time></trkpt><trkpt lat="40.014821147738374" lon="9.39358319955414"><ele>901.3333333333333</ele><time>2026-04-29T09:52:03.856Z</time></trkpt><trkpt lat="40.014927233320954" lon="9.393395957427797"><ele>903.0</ele><time>2026-04-29T09:52:04.856Z</time></trkpt><trkpt lat="40.0150392232196" lon="9.39321735486021"><ele>895.3333333333333</ele><time>2026-04-29T09:52:05.856Z</time></trkpt><trkpt lat="40.01515697279485" lon="9.393047384683227"><ele>887.6666666666666</ele><time>2026-04-29T09:52:06.856Z</time></trkpt><trkpt lat="40.01528439195512" lon="9.392889553219389"><ele>880.0</ele><time>2026-04-29T09:52:07.856Z</time></trkpt><trkpt lat="40.01541675474172" lon="9.392727344385806"><ele>879.6666666666666</ele><time>2026-04-29T09:52:08.856Z</time></trkpt><trkpt lat="40.01555509525041" lon="9.392576285556132"><ele>879.3333333333333</ele><time>2026-04-29T09:52:09.856Z</time></trkpt><trkpt lat="40.015695056787976" lon="9.392438335358268"><ele>879.0</ele><time>2026-04-29T09:52:10.854Z</time></trkpt><trkpt lat="40.015848039980035" lon="9.392301562680732"><ele>880.0</ele><time>2026-04-29T09:52:11.855Z</time></trkpt><trkpt lat="40.016003823993614" lon="9.392173521956137"><ele>881.0</ele><time>2026-04-29T09:52:12.855Z</time></trkpt><trkpt lat="40.01616716675058" lon="9.392064742797066"><ele>882.0</ele><time>2026-04-29T09:52:13.854Z</time></trkpt><trkpt lat="40.01633559264609" lon="9.391965857126884"><ele>883.3333333333333</ele><time>2026-04-29T09:52:14.854Z</time></trkpt><trkpt lat="40.01651201500815" lon="9.391870483654182"><ele>884.6666666666666</ele><time>2026-04-29T09:52:15.854Z</time></trkpt><trkpt lat="40.01668851791814" lon="9.391797018971218"><ele>886.0</ele><time>2026-04-29T09:52:16.854Z</time></trkpt><trkpt lat="40.01686926119966" lon="9.391727958490353"><ele>886.0</ele><time>2026-04-29T09:52:17.853Z</time></trkpt><trkpt lat="40.017051223210565" lon="9.39167505898616"><ele>886.0</ele><time>2026-04-29T09:52:18.853Z</time></trkpt><trkpt lat="40.017232291723516" lon="9.391631144049468"><ele>886.0</ele><time>2026-04-29T09:52:19.854Z</time></trkpt><trkpt lat="40.01741190260997" lon="9.391605050696011"><ele>889.3333333333333</ele><time>2026-04-29T09:52:20.854Z</time></trkpt><trkpt lat="40.01758847831374" lon="9.391591664314515"><ele>892.6666666666667</ele><time>2026-04-29T09:52:21.854Z</time></trkpt><trkpt lat="40.017776080555066" lon="9.391589273197784"><ele>896.0</ele><time>2026-04-29T09:52:22.855Z</time></trkpt><trkpt lat="40.01795893412142" lon="9.39159641827507"><ele>896.0</ele><time>2026-04-29T09:52:23.854Z</time></trkpt><trkpt lat="40.01814392124195" lon="9.3916083343606"><ele>896.0</ele><time>2026-04-29T09:52:24.854Z</time></trkpt><trkpt lat="40.018330759128006" lon="9.391632648886064"><ele>896.0</ele><time>2026-04-29T09:52:25.854Z</time></trkpt><trkpt lat="40.01852192918585" lon="9.391668464145564"><ele>895.0</ele><time>2026-04-29T09:52:26.854Z</time></trkpt><trkpt lat="40.018711641442124" lon="9.391707123743835"><ele>894.0</ele><time>2026-04-29T09:52:27.854Z</time></trkpt><trkpt lat="40.018897986688636" lon="9.391743157907129"><ele>893.0</ele><time>2026-04-29T09:52:28.854Z</time></trkpt><trkpt lat="40.019086480844145" lon="9.391787159815594"><ele>891.3333333333334</ele><time>2026-04-29T09:52:29.854Z</time></trkpt><trkpt lat="40.01927452753532" lon="9.391829563266713"><ele>889.6666666666667</ele><time>2026-04-29T09:52:30.854Z</time></trkpt><trkpt lat="40.01944754701811" lon="9.391851200447263"><ele>888.0</ele><time>2026-04-29T09:52:31.854Z</time></trkpt><trkpt lat="40.01962780848759" lon="9.391872686560687"><ele>888.0</ele><time>2026-04-29T09:52:32.854Z</time></trkpt><trkpt lat="40.01981173779319" lon="9.391888121901598"><ele>888.0</ele><time>2026-04-29T09:52:33.854Z</time></trkpt><trkpt lat="40.01999902119608" lon="9.391892562198574"><ele>888.0</ele><time>2026-04-29T09:52:34.854Z</time></trkpt><trkpt lat="40.02018780525654" lon="9.39187753133573"><ele>891.6666666666667</ele><time>2026-04-29T09:52:35.854Z</time></trkpt><trkpt lat="40.02037593193327" lon="9.391853896119914"><ele>895.3333333333334</ele><time>2026-04-29T09:52:36.854Z</time></trkpt><trkpt lat="40.02056155451952" lon="9.391819917146458"><ele>899.0</ele><time>2026-04-29T09:52:37.854Z</time></trkpt><trkpt lat="40.02074485521118" lon="9.391768585263458"><ele>899.6666666666667</ele><time>2026-04-29T09:52:38.854Z</time></trkpt><trkpt lat="40.020925009676034" lon="9.391707445098023"><ele>900.3333333333333</ele><time>2026-04-29T09:52:39.854Z</time></trkpt><trkpt lat="40.02110726424216" lon="9.391638843521717"><ele>901.0</ele><time>2026-04-29T09:52:40.854Z</time></trkpt><trkpt lat="40.02128086051943" lon="9.391557231422457"><ele>901.0</ele><time>2026-04-29T09:52:41.854Z</time></trkpt><trkpt lat="40.02145623568835" lon="9.391466152603973"><ele>901.0</ele><time>2026-04-29T09:52:42.854Z</time></trkpt><trkpt lat="40.02162638825517" lon="9.391363220794696"><ele>901.0</ele><time>2026-04-29T09:52:43.854Z</time></trkpt><trkpt lat="40.021796491971664" lon="9.391251783319845"><ele>898.6666666666666</ele><time>2026-04-29T09:52:44.854Z</time></trkpt><trkpt lat="40.021967719671146" lon="9.391134311645997"><ele>896.3333333333333</ele><time>2026-04-29T09:52:45.854Z</time></trkpt><trkpt lat="40.022140101120726" lon="9.391005423455606"><ele>894.0</ele><time>2026-04-29T09:52:46.854Z</time></trkpt><trkpt lat="40.02231507041745" lon="9.390881613642412"><ele>896.0</ele><time>2026-04-29T09:52:47.854Z</time></trkpt><trkpt lat="40.0224881763119" lon="9.39076200615798"><ele>898.0</ele><time>2026-04-29T09:52:48.854Z</time></trkpt><trkpt lat="40.02266436975952" lon="9.390644497721691"><ele>900.0</ele><time>2026-04-29T09:52:49.854Z</time></trkpt><trkpt lat="40.022845807522025" lon="9.390521303825174"><ele>901.0</ele><time>2026-04-29T09:52:50.854Z</time></trkpt><trkpt lat="40.0230219556954" lon="9.390384989007368"><ele>902.0</ele><time>2026-04-29T09:52:51.854Z</time></trkpt><trkpt lat="40.02319071064812" lon="9.390279800677979"><ele>903.0</ele><time>2026-04-29T09:52:52.854Z</time></trkpt><trkpt lat="40.023364494303095" lon="9.390158120828339"><ele>903.0</ele><time>2026-04-29T09:52:53.854Z</time></trkpt><trkpt lat="40.023541861350104" lon="9.39001784566153"><ele>903.0</ele><time>2026-04-29T09:52:54.854Z</time></trkpt><trkpt lat="40.02373528647965" lon="9.389892521268104"><ele>903.0</ele><time>2026-04-29T09:52:55.854Z</time></trkpt><trkpt lat="40.023924425010854" lon="9.389760622896127"><ele>901.6666666666667</ele><time>2026-04-29T09:52:56.854Z</time></trkpt><trkpt lat="40.02412139568995" lon="9.389623343906477"><ele>900.3333333333334</ele><time>2026-04-29T09:52:57.854Z</time></trkpt><trkpt lat="40.02431069382899" lon="9.389492333373504"><ele>899.0</ele><time>2026-04-29T09:52:58.854Z</time></trkpt><trkpt lat="40.02450803294085" lon="9.38935424951914"><ele>901.6666666666667</ele><time>2026-04-29T09:52:59.854Z</time></trkpt><trkpt lat="40.02469269963454" lon="9.389220055177248"><ele>904.3333333333333</ele><time>2026-04-29T09:53:00.854Z</time></trkpt><trkpt lat="40.02486464335094" lon="9.3890888263073"><ele>907.0</ele><time>2026-04-29T09:53:01.854Z</time></trkpt><trkpt lat="40.024994655602505" lon="9.388981720233526"><ele>907.3333333333333</ele><time>2026-04-29T09:53:02.854Z</time></trkpt><trkpt lat="40.02513139131122" lon="9.388859835150496"><ele>907.6666666666667</ele><time>2026-04-29T09:53:03.854Z</time></trkpt><trkpt lat="40.02527703302135" lon="9.38871613645244"><ele>908.0</ele><time>2026-04-29T09:53:04.854Z</time></trkpt><trkpt lat="40.0254135185244" lon="9.388540456752628"><ele>908.0</ele><time>2026-04-29T09:53:05.854Z</time></trkpt><trkpt lat="40.02555691001333" lon="9.388382545516045"><ele>908.0</ele><time>2026-04-29T09:53:06.854Z</time></trkpt><trkpt lat="40.02569725292889" lon="9.388210831601883"><ele>908.0</ele><time>2026-04-29T09:53:07.854Z</time></trkpt><trkpt lat="40.025831709353625" lon="9.388027960642958"><ele>912.3333333333334</ele><time>2026-04-29T09:53:08.854Z</time></trkpt><trkpt lat="40.0259512119638" lon="9.387839873255041"><ele>916.6666666666667</ele><time>2026-04-29T09:53:09.854Z</time></trkpt><trkpt lat="40.02606016748888" lon="9.387666074038929"><ele>921.0</ele><time>2026-04-29T09:53:10.854Z</time></trkpt><trkpt lat="40.02615483542759" lon="9.387470825557306"><ele>921.0</ele><time>2026-04-29T09:53:11.854Z</time></trkpt><trkpt lat="40.02623931898933" lon="9.387245733591143"><ele>921.0</ele><time>2026-04-29T09:53:12.854Z</time></trkpt><trkpt lat="40.02632198902372" lon="9.387031381426512"><ele>921.0</ele><time>2026-04-29T09:53:13.854Z</time></trkpt><trkpt lat="40.02640379005256" lon="9.386799668241663"><ele>928.5</ele><time>2026-04-29T09:53:14.854Z</time></trkpt><trkpt lat="40.02648251107806" lon="9.386507212687263"><ele>936.0</ele><time>2026-04-29T09:53:15.854Z</time></trkpt><trkpt lat="40.026544714149296" lon="9.38623628969422"><ele>933.6666666666667</ele><time>2026-04-29T09:53:16.854Z</time></trkpt><trkpt lat="40.02659388189261" lon="9.385963714166094"><ele>931.3333333333334</ele><time>2026-04-29T09:53:17.854Z</time></trkpt><trkpt lat="40.02663386916914" lon="9.385693092275528"><ele>929.0</ele><time>2026-04-29T09:53:18.854Z</time></trkpt><trkpt lat="40.02666559223508" lon="9.38542330099044"><ele>929.0</ele><time>2026-04-29T09:53:19.854Z</time></trkpt><trkpt lat="40.026684639908204" lon="9.385148361440205"><ele>929.0</ele><time>2026-04-29T09:53:20.854Z</time></trkpt><trkpt lat="40.026696575839914" lon="9.384870485658215"><ele>929.0</ele><time>2026-04-29T09:53:21.854Z</time></trkpt><trkpt lat="40.02670907762568" lon="9.384601326398444"><ele>930.0</ele><time>2026-04-29T09:53:22.854Z</time></trkpt><trkpt lat="40.02672256770129" lon="9.384336381584786"><ele>931.0</ele><time>2026-04-29T09:53:23.854Z</time></trkpt><trkpt lat="40.02673711632669" lon="9.384072568097983"><ele>932.0</ele><time>2026-04-29T09:53:24.854Z</time></trkpt><trkpt lat="40.02675883800733" lon="9.383807235407161"><ele>934.6666666666667</ele><time>2026-04-29T09:53:25.854Z</time></trkpt><trkpt lat="40.02678608353244" lon="9.383544474696908"><ele>937.3333333333333</ele><time>2026-04-29T09:53:26.854Z</time></trkpt><trkpt lat="40.0268235118965" lon="9.383285266572434"><ele>940.0</ele><time>2026-04-29T09:53:27.854Z</time></trkpt><trkpt lat="40.02687526976855" lon="9.383040188756866"><ele>944.0</ele><time>2026-04-29T09:53:28.854Z</time></trkpt><trkpt lat="40.026934702011296" lon="9.382794874590601"><ele>948.0</ele><time>2026-04-29T09:53:29.854Z</time></trkpt><trkpt lat="40.02701036017962" lon="9.382558838946206"><ele>952.0</ele><time>2026-04-29T09:53:30.854Z</time></trkpt><trkpt lat="40.027086574608816" lon="9.38231819295933"><ele>955.3333333333333</ele><time>2026-04-29T09:53:31.854Z</time></trkpt><trkpt lat="40.02716495835717" lon="9.382081124606465"><ele>958.6666666666667</ele><time>2026-04-29T09:53:32.854Z</time></trkpt><trkpt lat="40.02724220716497" lon="9.381842845873598"><ele>962.0</ele><time>2026-04-29T09:53:33.854Z</time></trkpt><trkpt lat="40.02732234136795" lon="9.381606770515633"><ele>962.0</ele><time>2026-04-29T09:53:34.854Z</time></trkpt><trkpt lat="40.027401119888395" lon="9.38136734020827"><ele>962.0</ele><time>2026-04-29T09:53:35.854Z</time></trkpt><trkpt lat="40.02747966734236" lon="9.381123268978307"><ele>962.0</ele><time>2026-04-29T09:53:36.854Z</time></trkpt><trkpt lat="40.02755903065373" lon="9.380868470599076"><ele>956.6666666666667</ele><time>2026-04-29T09:53:37.854Z</time></trkpt><trkpt lat="40.027642421855404" lon="9.380610286862822"><ele>951.3333333333333</ele><time>2026-04-29T09:53:38.854Z</time></trkpt><trkpt lat="40.027730806489195" lon="9.380360457473362"><ele>946.0</ele><time>2026-04-29T09:53:39.854Z</time></trkpt><trkpt lat="40.02782143732921" lon="9.380115330376357"><ele>946.0</ele><time>2026-04-29T09:53:40.854Z</time></trkpt><trkpt lat="40.027915655663826" lon="9.37987807425463"><ele>946.0</ele><time>2026-04-29T09:53:41.854Z</time></trkpt><trkpt lat="40.028013755140066" lon="9.379643827620313"><ele>946.0</ele><time>2026-04-29T09:53:42.854Z</time></trkpt><trkpt lat="40.02811902570372" lon="9.379417312878001"><ele>946.0</ele><time>2026-04-29T09:53:43.854Z</time></trkpt><trkpt lat="40.028231011580935" lon="9.37919407594397"><ele>946.0</ele><time>2026-04-29T09:53:44.854Z</time></trkpt><trkpt lat="40.02835031594903" lon="9.378971588855332"><ele>946.0</ele><time>2026-04-29T09:53:45.854Z</time></trkpt><trkpt lat="40.02847901525923" lon="9.378755961956019"><ele>950.6666666666666</ele><time>2026-04-29T09:53:46.854Z</time></trkpt><trkpt lat="40.02861852687188" lon="9.378554087266997"><ele>955.3333333333333</ele><time>2026-04-29T09:53:47.854Z</time></trkpt><trkpt lat="40.0287756795189" lon="9.378379594105942"><ele>960.0</ele><time>2026-04-29T09:53:48.854Z</time></trkpt><trkpt lat="40.028934274009416" lon="9.378207042884936"><ele>960.0</ele><time>2026-04-29T09:53:49.854Z</time></trkpt><trkpt lat="40.02909587933117" lon="9.378043809044442"><ele>960.0</ele><time>2026-04-29T09:53:50.854Z</time></trkpt><trkpt lat="40.029262021480214" lon="9.377906433927764"><ele>960.0</ele><time>2026-04-29T09:53:51.854Z</time></trkpt><trkpt lat="40.02943963055136" lon="9.377775610817157"><ele>957.3333333333333</ele><time>2026-04-29T09:53:52.854Z</time></trkpt><trkpt lat="40.029613890946784" lon="9.3776316609262"><ele>954.6666666666666</ele><time>2026-04-29T09:53:53.854Z</time></trkpt><trkpt lat="40.029804116596054" lon="9.37753228433156"><ele>952.0</ele><time>2026-04-29T09:53:54.854Z</time></trkpt><trkpt lat="40.02999358454117" lon="9.377446323666966"><ele>948.6666666666666</ele><time>2026-04-29T09:53:55.854Z</time></trkpt><trkpt lat="40.03019045400447" lon="9.377379658382452"><ele>945.3333333333333</ele><time>2026-04-29T09:53:56.854Z</time></trkpt><trkpt lat="40.03038366880768" lon="9.377316865277264"><ele>942.0</ele><time>2026-04-29T09:53:57.854Z</time></trkpt><trkpt lat="40.03057677770085" lon="9.377256407169826"><ele>942.0</ele><time>2026-04-29T09:53:58.854Z</time></trkpt><trkpt lat="40.030767380567134" lon="9.377203755895128"><ele>942.0</ele><time>2026-04-29T09:53:59.854Z</time></trkpt><trkpt lat="40.0309535906524" lon="9.377169189073697"><ele>942.0</ele><time>2026-04-29T09:54:00.854Z</time></trkpt><trkpt lat="40.03113447480246" lon="9.377137757109763"><ele>945.3333333333333</ele><time>2026-04-29T09:54:01.854Z</time></trkpt><trkpt lat="40.031322932381684" lon="9.377113185820459"><ele>948.6666666666666</ele><time>2026-04-29T09:54:02.854Z</time></trkpt><trkpt lat="40.03148986121141" lon="9.377065466015141"><ele>952.0</ele><time>2026-04-29T09:54:03.854Z</time></trkpt><trkpt lat="40.031646375557436" lon="9.37701840549719"><ele>952.0</ele><time>2026-04-29T09:54:04.854Z</time></trkpt><trkpt lat="40.031812265427085" lon="9.37696855187766"><ele>952.0</ele><time>2026-04-29T09:54:05.854Z</time></trkpt><trkpt lat="40.03197649980958" lon="9.376918554894134"><ele>952.0</ele><time>2026-04-29T09:54:06.854Z</time></trkpt><trkpt lat="40.03214906092725" lon="9.37686602303254"><ele>952.0</ele><time>2026-04-29T09:54:07.854Z</time></trkpt><trkpt lat="40.032348374948235" lon="9.376805346880461"><ele>952.0</ele><time>2026-04-29T09:54:08.854Z</time></trkpt><trkpt lat="40.03256431090076" lon="9.376739727497359"><ele>952.0</ele><time>2026-04-29T09:54:09.854Z</time></trkpt><trkpt lat="40.03280609953698" lon="9.376666764907121"><ele>950.5</ele><time>2026-04-29T09:54:10.854Z</time></trkpt><trkpt lat="40.033055946293274" lon="9.376609907567138"><ele>949.0</ele><time>2026-04-29T09:54:11.854Z</time></trkpt><trkpt lat="40.0332722833715" lon="9.37650111857112"><ele>950.3333333333333</ele><time>2026-04-29T09:54:12.854Z</time></trkpt><trkpt lat="40.033481025026305" lon="9.376411666971066"><ele>951.6666666666667</ele><time>2026-04-29T09:54:13.854Z</time></trkpt><trkpt lat="40.033687512855195" lon="9.376332215825807"><ele>953.0</ele><time>2026-04-29T09:54:14.854Z</time></trkpt><trkpt lat="40.03389329368804" lon="9.376257096941142"><ele>953.0</ele><time>2026-04-29T09:54:15.854Z</time></trkpt><trkpt lat="40.03410002271797" lon="9.376181987385031"><ele>953.0</ele><time>2026-04-29T09:54:16.852Z</time></trkpt><trkpt lat="40.034303682105964" lon="9.376108145822343"><ele>953.0</ele><time>2026-04-29T09:54:17.852Z</time></trkpt><trkpt lat="40.03450787240583" lon="9.376040157772296"><ele>948.6666666666667</ele><time>2026-04-29T09:54:18.852Z</time></trkpt><trkpt lat="40.03471350945345" lon="9.375966537878343"><ele>944.3333333333333</ele><time>2026-04-29T09:54:19.853Z</time></trkpt><trkpt lat="40.03491697275304" lon="9.375902976078118"><ele>940.0</ele><time>2026-04-29T09:54:20.852Z</time></trkpt><trkpt lat="40.035120289680044" lon="9.375845807624984"><ele>940.0</ele><time>2026-04-29T09:54:21.852Z</time></trkpt><trkpt lat="40.03532249000979" lon="9.375781786289922"><ele>940.0</ele><time>2026-04-29T09:54:22.853Z</time></trkpt><trkpt lat="40.03552375680416" lon="9.375718426761221"><ele>940.0</ele><time>2026-04-29T09:54:23.852Z</time></trkpt><trkpt lat="40.03572274853376" lon="9.375656423356759"><ele>939.3333333333333</ele><time>2026-04-29T09:54:24.852Z</time></trkpt><trkpt lat="40.03592505667095" lon="9.375587866028832"><ele>938.6666666666667</ele><time>2026-04-29T09:54:25.852Z</time></trkpt><trkpt lat="40.03612158889245" lon="9.375519990274128"><ele>938.0</ele><time>2026-04-29T09:54:26.852Z</time></trkpt><trkpt lat="40.03631225563236" lon="9.375451552427782"><ele>943.6666666666667</ele><time>2026-04-29T09:54:27.852Z</time></trkpt><trkpt lat="40.03649698814608" lon="9.375378096452668"><ele>949.3333333333333</ele><time>2026-04-29T09:54:28.853Z</time></trkpt><trkpt lat="40.03667727320723" lon="9.375291481700375"><ele>955.0</ele><time>2026-04-29T09:54:29.852Z</time></trkpt><trkpt lat="40.03685624723471" lon="9.375194488011543"><ele>955.6666666666666</ele><time>2026-04-29T09:54:30.852Z</time></trkpt><trkpt lat="40.03703285843518" lon="9.375094672985933"><ele>956.3333333333333</ele><time>2026-04-29T09:54:31.852Z</time></trkpt><trkpt lat="40.03720070894731" lon="9.374972632896352"><ele>957.0</ele><time>2026-04-29T09:54:32.852Z</time></trkpt><trkpt lat="40.03737563503191" lon="9.374839286150225"><ele>957.6666666666667</ele><time>2026-04-29T09:54:33.852Z</time></trkpt><trkpt lat="40.03753962879439" lon="9.374686545276457"><ele>958.3333333333334</ele><time>2026-04-29T09:54:34.852Z</time></trkpt><trkpt lat="40.03770624046054" lon="9.374518268420724"><ele>959.0</ele><time>2026-04-29T09:54:35.852Z</time></trkpt><trkpt lat="40.037860198410506" lon="9.374341321732834"><ele>959.0</ele><time>2026-04-29T09:54:36.852Z</time></trkpt><trkpt lat="40.03800764577357" lon="9.374152575587441"><ele>959.0</ele><time>2026-04-29T09:54:37.852Z</time></trkpt><trkpt lat="40.038152628184385" lon="9.373954268865285"><ele>959.0</ele><time>2026-04-29T09:54:38.852Z</time></trkpt><trkpt lat="40.038294580847754" lon="9.373750259333933"><ele>956.3333333333334</ele><time>2026-04-29T09:54:39.852Z</time></trkpt><trkpt lat="40.03843527746329" lon="9.373541440778432"><ele>953.6666666666667</ele><time>2026-04-29T09:54:40.852Z</time></trkpt><trkpt lat="40.038576478431224" lon="9.373334191914129"><ele>951.0</ele><time>2026-04-29T09:54:41.852Z</time></trkpt><trkpt lat="40.038719469670184" lon="9.373129013483458"><ele>952.6666666666667</ele><time>2026-04-29T09:54:42.852Z</time></trkpt><trkpt lat="40.03886403713494" lon="9.372929050748615"><ele>954.3333333333334</ele><time>2026-04-29T09:54:43.852Z</time></trkpt><trkpt lat="40.03900829806476" lon="9.372732059519432"><ele>956.0</ele><time>2026-04-29T09:54:44.852Z</time></trkpt><trkpt lat="40.0391527379992" lon="9.37252566767175"><ele>953.3333333333334</ele><time>2026-04-29T09:54:45.852Z</time></trkpt><trkpt lat="40.03929643231106" lon="9.372332223903506"><ele>950.6666666666667</ele><time>2026-04-29T09:54:46.852Z</time></trkpt><trkpt lat="40.039441734590206" lon="9.37213873306353"><ele>948.0</ele><time>2026-04-29T09:54:47.852Z</time></trkpt><trkpt lat="40.03960717356344" lon="9.371973505846416"><ele>948.0</ele><time>2026-04-29T09:54:48.852Z</time></trkpt><trkpt lat="40.039762216617156" lon="9.371797640462331"><ele>948.0</ele><time>2026-04-29T09:54:49.852Z</time></trkpt><trkpt lat="40.0399217698012" lon="9.371626689048913"><ele>948.0</ele><time>2026-04-29T09:54:50.852Z</time></trkpt><trkpt lat="40.040057011178426" lon="9.371497670149953"><ele>953.3333333333333</ele><time>2026-04-29T09:54:51.852Z</time></trkpt><trkpt lat="40.040220422850865" lon="9.371336522135753"><ele>958.6666666666666</ele><time>2026-04-29T09:54:52.852Z</time></trkpt><trkpt lat="40.040383077661524" lon="9.371180300972997"><ele>964.0</ele><time>2026-04-29T09:54:53.852Z</time></trkpt><trkpt lat="40.04054881418136" lon="9.371030279433986"><ele>964.0</ele><time>2026-04-29T09:54:54.852Z</time></trkpt><trkpt lat="40.04071700641194" lon="9.370886138075589"><ele>964.0</ele><time>2026-04-29T09:54:55.852Z</time></trkpt><trkpt lat="40.0408848765007" lon="9.370752989627766"><ele>964.0</ele><time>2026-04-29T09:54:56.852Z</time></trkpt><trkpt lat="40.04105285066472" lon="9.370621418272638"><ele>967.6666666666666</ele><time>2026-04-29T09:54:57.852Z</time></trkpt><trkpt lat="40.041222543036994" lon="9.370492746012484"><ele>971.3333333333333</ele><time>2026-04-29T09:54:58.852Z</time></trkpt><trkpt lat="40.041393613502805" lon="9.370364626141045"><ele>975.0</ele><time>2026-04-29T09:54:59.852Z</time></trkpt><trkpt lat="40.041569947430304" lon="9.370240672612274"><ele>969.0</ele><time>2026-04-29T09:55:00.852Z</time></trkpt><trkpt lat="40.041748865252494" lon="9.370123494050473"><ele>963.0</ele><time>2026-04-29T09:55:01.852Z</time></trkpt><trkpt lat="40.04193191780142" lon="9.370015424213454"><ele>957.0</ele><time>2026-04-29T09:55:02.852Z</time></trkpt><trkpt lat="40.04211998936675" lon="9.369908958714243"><ele>957.0</ele><time>2026-04-29T09:55:03.852Z</time></trkpt><trkpt lat="40.04230909075087" lon="9.36980603427581"><ele>957.0</ele><time>2026-04-29T09:55:04.852Z</time></trkpt><trkpt lat="40.042501804623576" lon="9.369709185924613"><ele>957.0</ele><time>2026-04-29T09:55:05.852Z</time></trkpt><trkpt lat="40.042697574026604" lon="9.369613009997332"><ele>959.6666666666667</ele><time>2026-04-29T09:55:06.852Z</time></trkpt><trkpt lat="40.04289768630455" lon="9.369527862284102"><ele>962.3333333333334</ele><time>2026-04-29T09:55:07.852Z</time></trkpt><trkpt lat="40.04309828866793" lon="9.369455438902497"><ele>965.0</ele><time>2026-04-29T09:55:08.852Z</time></trkpt><trkpt lat="40.04329853000187" lon="9.36938253978501"><ele>965.3333333333334</ele><time>2026-04-29T09:55:09.852Z</time></trkpt><trkpt lat="40.04350099102398" lon="9.369313222949522"><ele>965.6666666666667</ele><time>2026-04-29T09:55:10.852Z</time></trkpt><trkpt lat="40.04370367899616" lon="9.369243439240664"><ele>966.0</ele><time>2026-04-29T09:55:11.852Z</time></trkpt><trkpt lat="40.04390857882948" lon="9.369170598017092"><ele>966.0</ele><time>2026-04-29T09:55:12.852Z</time></trkpt><trkpt lat="40.044111342627204" lon="9.369098348945368"><ele>966.0</ele><time>2026-04-29T09:55:13.852Z</time></trkpt><trkpt lat="40.04431875242408" lon="9.369034086863865"><ele>966.0</ele><time>2026-04-29T09:55:14.852Z</time></trkpt><trkpt lat="40.04452312393294" lon="9.368968369970943"><ele>966.6666666666667</ele><time>2026-04-29T09:55:15.852Z</time></trkpt><trkpt lat="40.04472512277432" lon="9.36890066746617"><ele>967.3333333333334</ele><time>2026-04-29T09:55:16.852Z</time></trkpt><trkpt lat="40.0449277043339" lon="9.368828694636202"><ele>968.0</ele><time>2026-04-29T09:55:17.852Z</time></trkpt><trkpt lat="40.04512792048821" lon="9.368759947139758"><ele>968.0</ele><time>2026-04-29T09:55:18.852Z</time></trkpt><trkpt lat="40.045326003986865" lon="9.368689310905626"><ele>968.0</ele><time>2026-04-29T09:55:19.852Z</time></trkpt><trkpt lat="40.045524889765026" lon="9.368617696201497"><ele>968.0</ele><time>2026-04-29T09:55:20.852Z</time></trkpt><trkpt lat="40.04572369912229" lon="9.368544358279888"><ele>964.3333333333334</ele><time>2026-04-29T09:55:21.852Z</time></trkpt><trkpt lat="40.04592399705332" lon="9.368472302999578"><ele>960.6666666666667</ele><time>2026-04-29T09:55:22.852Z</time></trkpt><trkpt lat="40.046124081471795" lon="9.368402249402827"><ele>957.0</ele><time>2026-04-29T09:55:23.852Z</time></trkpt><trkpt lat="40.046326156131045" lon="9.368333671745432"><ele>957.0</ele><time>2026-04-29T09:55:24.852Z</time></trkpt><trkpt lat="40.04652957033473" lon="9.368265518398196"><ele>957.0</ele><time>2026-04-29T09:55:25.852Z</time></trkpt><trkpt lat="40.04672791569265" lon="9.368191774883538"><ele>957.0</ele><time>2026-04-29T09:55:26.852Z</time></trkpt><trkpt lat="40.04692549201541" lon="9.368120482108473"><ele>956.6666666666667</ele><time>2026-04-29T09:55:27.852Z</time></trkpt><trkpt lat="40.04712897842278" lon="9.368042613880315"><ele>956.3333333333334</ele><time>2026-04-29T09:55:28.852Z</time></trkpt><trkpt lat="40.04732784328968" lon="9.367971798179923"><ele>956.0</ele><time>2026-04-29T09:55:29.852Z</time></trkpt><trkpt lat="40.047525970333055" lon="9.367904515220886"><ele>962.6666666666667</ele><time>2026-04-29T09:55:30.852Z</time></trkpt><trkpt lat="40.04772532531838" lon="9.367837172057241"><ele>969.3333333333333</ele><time>2026-04-29T09:55:31.852Z</time></trkpt><trkpt lat="40.0479211244797" lon="9.367763217264566"><ele>976.0</ele><time>2026-04-29T09:55:32.852Z</time></trkpt><trkpt lat="40.04811576033805" lon="9.367695173726826"><ele>973.3333333333333</ele><time>2026-04-29T09:55:33.852Z</time></trkpt><trkpt lat="40.04830841341111" lon="9.367629026136719"><ele>970.6666666666667</ele><time>2026-04-29T09:55:34.852Z</time></trkpt><trkpt lat="40.04850137980377" lon="9.367559536984121"><ele>968.0</ele><time>2026-04-29T09:55:35.852Z</time></trkpt><trkpt lat="40.04868682064301" lon="9.367485486160193"><ele>968.0</ele><time>2026-04-29T09:55:36.852Z</time></trkpt><trkpt lat="40.048865979085384" lon="9.367392235165994"><ele>968.0</ele><time>2026-04-29T09:55:37.852Z</time></trkpt><trkpt lat="40.04905024384999" lon="9.36728910726795"><ele>968.0</ele><time>2026-04-29T09:55:38.852Z</time></trkpt><trkpt lat="40.049232421025614" lon="9.367175953504947"><ele>971.3333333333334</ele><time>2026-04-29T09:55:39.852Z</time></trkpt><trkpt lat="40.04941098667047" lon="9.36704872898442"><ele>974.6666666666667</ele><time>2026-04-29T09:55:40.852Z</time></trkpt><trkpt lat="40.04958184087593" lon="9.366910222902469"><ele>978.0</ele><time>2026-04-29T09:55:41.852Z</time></trkpt><trkpt lat="40.049745298832136" lon="9.366757356614317"><ele>978.0</ele><time>2026-04-29T09:55:42.852Z</time></trkpt><trkpt lat="40.04989630695521" lon="9.366585625454679"><ele>978.0</ele><time>2026-04-29T09:55:43.852Z</time></trkpt><trkpt lat="40.05004556807562" lon="9.366406265183093"><ele>978.0</ele><time>2026-04-29T09:55:44.852Z</time></trkpt><trkpt lat="40.05018963385691" lon="9.366219003662566"><ele>978.0</ele><time>2026-04-29T09:55:45.852Z</time></trkpt><trkpt lat="40.050333057788" lon="9.366033260220654"><ele>978.0</ele><time>2026-04-29T09:55:46.852Z</time></trkpt><trkpt lat="40.050473718089165" lon="9.3658442201951"><ele>978.0</ele><time>2026-04-29T09:55:47.852Z</time></trkpt><trkpt lat="40.05061312004755" lon="9.36566137023931"><ele>980.3333333333333</ele><time>2026-04-29T09:55:48.852Z</time></trkpt><trkpt lat="40.050756134370026" lon="9.365474063280024"><ele>982.6666666666666</ele><time>2026-04-29T09:55:49.852Z</time></trkpt><trkpt lat="40.05090051376712" lon="9.365291566971285"><ele>985.0</ele><time>2026-04-29T09:55:50.852Z</time></trkpt><trkpt lat="40.05104507489441" lon="9.36512229217112"><ele>983.6666666666666</ele><time>2026-04-29T09:55:51.852Z</time></trkpt><trkpt lat="40.051196460648136" lon="9.364957869988016"><ele>982.3333333333333</ele><time>2026-04-29T09:55:52.852Z</time></trkpt><trkpt lat="40.0513545757633" lon="9.364806045777312"><ele>981.0</ele><time>2026-04-29T09:55:53.852Z</time></trkpt><trkpt lat="40.05151972192667" lon="9.364671215825314"><ele>977.0</ele><time>2026-04-29T09:55:54.852Z</time></trkpt><trkpt lat="40.05169311333225" lon="9.364539024276915"><ele>973.0</ele><time>2026-04-29T09:55:55.852Z</time></trkpt><trkpt lat="40.0518724120886" lon="9.36441900003877"><ele>969.0</ele><time>2026-04-29T09:55:56.852Z</time></trkpt><trkpt lat="40.05205481054458" lon="9.364322998381706"><ele>969.0</ele><time>2026-04-29T09:55:57.852Z</time></trkpt><trkpt lat="40.0522401203546" lon="9.364235527076755"><ele>969.0</ele><time>2026-04-29T09:55:58.852Z</time></trkpt><trkpt lat="40.05242990837194" lon="9.36415537138303"><ele>969.0</ele><time>2026-04-29T09:55:59.852Z</time></trkpt><trkpt lat="40.052622630686024" lon="9.36409158296883"><ele>967.0</ele><time>2026-04-29T09:56:00.852Z</time></trkpt><trkpt lat="40.05281723642446" lon="9.364038328409583"><ele>965.0</ele><time>2026-04-29T09:56:01.852Z</time></trkpt><trkpt lat="40.05301363290347" lon="9.363993515997914"><ele>963.0</ele><time>2026-04-29T09:56:02.852Z</time></trkpt><trkpt lat="40.053210423487926" lon="9.363968552944995"><ele>964.3333333333333</ele><time>2026-04-29T09:56:03.852Z</time></trkpt><trkpt lat="40.05341364924559" lon="9.363937722743644"><ele>965.6666666666666</ele><time>2026-04-29T09:56:04.852Z</time></trkpt><trkpt lat="40.05362487058044" lon="9.363902297112762"><ele>967.0</ele><time>2026-04-29T09:56:05.852Z</time></trkpt><trkpt lat="40.05383612699985" lon="9.363867634604572"><ele>970.0</ele><time>2026-04-29T09:56:06.852Z</time></trkpt><trkpt lat="40.054046589044475" lon="9.363829114875367"><ele>973.0</ele><time>2026-04-29T09:56:07.852Z</time></trkpt><trkpt lat="40.05425957289673" lon="9.363803383095174"><ele>976.0</ele><time>2026-04-29T09:56:08.852Z</time></trkpt><trkpt lat="40.05447585321162" lon="9.363769621933555"><ele>980.3333333333333</ele><time>2026-04-29T09:56:09.852Z</time></trkpt><trkpt lat="40.054694450949526" lon="9.363736362093986"><ele>984.6666666666667</ele><time>2026-04-29T09:56:10.852Z</time></trkpt><trkpt lat="40.05491104079332" lon="9.363702402975663"><ele>989.0</ele><time>2026-04-29T09:56:11.852Z</time></trkpt><trkpt lat="40.05513290826819" lon="9.363668458180907"><ele>989.0</ele><time>2026-04-29T09:56:12.852Z</time></trkpt><trkpt lat="40.055357404549106" lon="9.363635281470689"><ele>989.0</ele><time>2026-04-29T09:56:13.852Z</time></trkpt><trkpt lat="40.055574538740736" lon="9.36360225932704"><ele>989.0</ele><time>2026-04-29T09:56:14.852Z</time></trkpt><trkpt lat="40.0557902901204" lon="9.363568763438286"><ele>989.0</ele><time>2026-04-29T09:56:15.852Z</time></trkpt><trkpt lat="40.05600633807756" lon="9.363531839974879"><ele>989.0</ele><time>2026-04-29T09:56:16.852Z</time></trkpt><trkpt lat="40.05622001676773" lon="9.363496520633465"><ele>989.0</ele><time>2026-04-29T09:56:17.852Z</time></trkpt><trkpt lat="40.0564369412927" lon="9.363461950815884"><ele>990.0</ele><time>2026-04-29T09:56:18.852Z</time></trkpt><trkpt lat="40.05664830215724" lon="9.3634241754583"><ele>991.0</ele><time>2026-04-29T09:56:19.852Z</time></trkpt><trkpt lat="40.05686079850092" lon="9.363387738483754"><ele>992.0</ele><time>2026-04-29T09:56:20.852Z</time></trkpt><trkpt lat="40.05707734203189" lon="9.363349815853136"><ele>992.0</ele><time>2026-04-29T09:56:21.852Z</time></trkpt><trkpt lat="40.05729099593503" lon="9.363310227440031"><ele>992.0</ele><time>2026-04-29T09:56:22.852Z</time></trkpt><trkpt lat="40.05750342267473" lon="9.363273166457791"><ele>992.0</ele><time>2026-04-29T09:56:23.852Z</time></trkpt><trkpt lat="40.05771695698842" lon="9.363239935986767"><ele>994.6666666666667</ele><time>2026-04-29T09:56:24.852Z</time></trkpt><trkpt lat="40.057934571325134" lon="9.363211961112333"><ele>997.3333333333333</ele><time>2026-04-29T09:56:25.851Z</time></trkpt><trkpt lat="40.05815314849656" lon="9.363199734124636"><ele>1000.0</ele><time>2026-04-29T09:56:26.851Z</time></trkpt><trkpt lat="40.058368978451604" lon="9.363194172935591"><ele>1000.6666666666666</ele><time>2026-04-29T09:56:27.851Z</time></trkpt><trkpt lat="40.05858143050189" lon="9.363202388553006"><ele>1001.3333333333333</ele><time>2026-04-29T09:56:28.852Z</time></trkpt><trkpt lat="40.05879445282722" lon="9.363220500786273"><ele>1002.0</ele><time>2026-04-29T09:56:29.851Z</time></trkpt><trkpt lat="40.059010293715794" lon="9.363251663151848"><ele>1004.0</ele><time>2026-04-29T09:56:30.851Z</time></trkpt><trkpt lat="40.059226041803655" lon="9.363306626576136"><ele>1006.0</ele><time>2026-04-29T09:56:31.852Z</time></trkpt><trkpt lat="40.05943364777139" lon="9.363374122913383"><ele>1008.0</ele><time>2026-04-29T09:56:32.851Z</time></trkpt><trkpt lat="40.059633290482445" lon="9.36346553570537"><ele>1008.0</ele><time>2026-04-29T09:56:33.851Z</time></trkpt><trkpt lat="40.05983545150142" lon="9.363559959180126"><ele>1008.0</ele><time>2026-04-29T09:56:34.851Z</time></trkpt><trkpt lat="40.06003171046486" lon="9.363673488266135"><ele>1008.0</ele><time>2026-04-29T09:56:35.852Z</time></trkpt><trkpt lat="40.0602312073544" lon="9.363787088142441"><ele>1009.6666666666667</ele><time>2026-04-29T09:56:36.852Z</time></trkpt><trkpt lat="40.060429648867775" lon="9.363893836521834"><ele>1011.3333333333334</ele><time>2026-04-29T09:56:37.852Z</time></trkpt><trkpt lat="40.06063068710756" lon="9.363997825714591"><ele>1013.0</ele><time>2026-04-29T09:56:38.852Z</time></trkpt><trkpt lat="40.06082967708932" lon="9.364089324389681"><ele>1013.0</ele><time>2026-04-29T09:56:39.852Z</time></trkpt><trkpt lat="40.061031837788335" lon="9.364169217769573"><ele>1013.0</ele><time>2026-04-29T09:56:40.852Z</time></trkpt><trkpt lat="40.06123686716889" lon="9.364239113003844"><ele>1013.0</ele><time>2026-04-29T09:56:41.852Z</time></trkpt><trkpt lat="40.06144607961134" lon="9.364297951080301"><ele>1016.3333333333334</ele><time>2026-04-29T09:56:42.852Z</time></trkpt><trkpt lat="40.06165286642354" lon="9.364326193414165"><ele>1019.6666666666667</ele><time>2026-04-29T09:56:43.852Z</time></trkpt><trkpt lat="40.061868391394846" lon="9.364335043628573"><ele>1023.0</ele><time>2026-04-29T09:56:44.852Z</time></trkpt><trkpt lat="40.062071825375746" lon="9.36431632949023"><ele>1023.0</ele><time>2026-04-29T09:56:45.852Z</time></trkpt><trkpt lat="40.06229088306586" lon="9.364292036070424"><ele>1023.0</ele><time>2026-04-29T09:56:46.852Z</time></trkpt><trkpt lat="40.06250699831092" lon="9.364255786395239"><ele>1023.0</ele><time>2026-04-29T09:56:47.852Z</time></trkpt><trkpt lat="40.06272516408086" lon="9.36420803142291"><ele>1025.0</ele><time>2026-04-29T09:56:48.852Z</time></trkpt><trkpt lat="40.06294171126485" lon="9.364148399907268"><ele>1027.0</ele><time>2026-04-29T09:56:49.852Z</time></trkpt><trkpt lat="40.06315632037632" lon="9.364070689191292"><ele>1029.0</ele><time>2026-04-29T09:56:50.852Z</time></trkpt><trkpt lat="40.063372678592295" lon="9.3639856521359"><ele>1029.5</ele><time>2026-04-29T09:56:51.852Z</time></trkpt><trkpt lat="40.06358920265271" lon="9.36388613735661"><ele>1030.0</ele><time>2026-04-29T09:56:52.852Z</time></trkpt><trkpt lat="40.063799907069814" lon="9.363778531646448"><ele>1034.3333333333333</ele><time>2026-04-29T09:56:53.852Z</time></trkpt><trkpt lat="40.06400990679456" lon="9.363664667632598"><ele>1038.6666666666667</ele><time>2026-04-29T09:56:54.852Z</time></trkpt><trkpt lat="40.06420968848359" lon="9.363546982436555"><ele>1043.0</ele><time>2026-04-29T09:56:55.852Z</time></trkpt><trkpt lat="40.064410129935716" lon="9.36343996652889"><ele>1043.0</ele><time>2026-04-29T09:56:56.852Z</time></trkpt><trkpt lat="40.064609481181925" lon="9.363341094748979"><ele>1043.0</ele><time>2026-04-29T09:56:57.852Z</time></trkpt><trkpt lat="40.06481655985404" lon="9.363255809809411"><ele>1043.0</ele><time>2026-04-29T09:56:58.852Z</time></trkpt><trkpt lat="40.06503003445892" lon="9.363183698093021"><ele>1039.6666666666667</ele><time>2026-04-29T09:56:59.852Z</time></trkpt><trkpt lat="40.06524937721391" lon="9.363127603403637"><ele>1036.3333333333333</ele><time>2026-04-29T09:57:00.852Z</time></trkpt><trkpt lat="40.06546619659778" lon="9.363078285178569"><ele>1033.0</ele><time>2026-04-29T09:57:01.852Z</time></trkpt><trkpt lat="40.065682752206975" lon="9.36304516526652"><ele>1041.6666666666665</ele><time>2026-04-29T09:57:02.852Z</time></trkpt><trkpt lat="40.06590640553249" lon="9.363019755732713"><ele>1050.3333333333333</ele><time>2026-04-29T09:57:03.852Z</time></trkpt><trkpt lat="40.06612766240677" lon="9.36300486529495"><ele>1059.0</ele><time>2026-04-29T09:57:04.852Z</time></trkpt><trkpt lat="40.066348297828334" lon="9.363003535314448"><ele>1059.0</ele><time>2026-04-29T09:57:05.852Z</time></trkpt><trkpt lat="40.06657183294777" lon="9.363002162476596"><ele>1059.0</ele><time>2026-04-29T09:57:06.852Z</time></trkpt><trkpt lat="40.06679760780347" lon="9.362998566420538"><ele>1059.0</ele><time>2026-04-29T09:57:07.852Z</time></trkpt><trkpt lat="40.06702099388775" lon="9.362993567482302"><ele>1058.0</ele><time>2026-04-29T09:57:08.852Z</time></trkpt><trkpt lat="40.0672351837332" lon="9.362985955730377"><ele>1057.0</ele><time>2026-04-29T09:57:09.852Z</time></trkpt><trkpt lat="40.067449231301346" lon="9.362979196726723"><ele>1056.0</ele><time>2026-04-29T09:57:10.852Z</time></trkpt><trkpt lat="40.067660538998396" lon="9.36297257348676"><ele>1054.0</ele><time>2026-04-29T09:57:11.852Z</time></trkpt><trkpt lat="40.067872963061625" lon="9.362961144092184"><ele>1052.0</ele><time>2026-04-29T09:57:12.852Z</time></trkpt><trkpt lat="40.068080915400024" lon="9.362943451421957"><ele>1050.0</ele><time>2026-04-29T09:57:13.852Z</time></trkpt><trkpt lat="40.06828993757648" lon="9.362945453682572"><ele>1050.0</ele><time>2026-04-29T09:57:14.852Z</time></trkpt><trkpt lat="40.06849163776459" lon="9.362890518864319"><ele>1050.0</ele><time>2026-04-29T09:57:15.852Z</time></trkpt><trkpt lat="40.0686880006876" lon="9.362826400718506"><ele>1050.0</ele><time>2026-04-29T09:57:16.852Z</time></trkpt><trkpt lat="40.068883107037784" lon="9.362752484804293"><ele>1050.0</ele><time>2026-04-29T09:57:17.852Z</time></trkpt><trkpt lat="40.06907643320268" lon="9.362667016306451"><ele>1050.0</ele><time>2026-04-29T09:57:18.852Z</time></trkpt><trkpt lat="40.069266807954264" lon="9.362578668554562"><ele>1050.0</ele><time>2026-04-29T09:57:19.852Z</time></trkpt><trkpt lat="40.069464644375834" lon="9.36247301042595"><ele>1054.0</ele><time>2026-04-29T09:57:20.852Z</time></trkpt><trkpt lat="40.069657778226016" lon="9.362376248393842"><ele>1058.0</ele><time>2026-04-29T09:57:21.852Z</time></trkpt><trkpt lat="40.06984976030172" lon="9.362281199357339"><ele>1062.0</ele><time>2026-04-29T09:57:22.852Z</time></trkpt><trkpt lat="40.07004485466618" lon="9.362187451513526"><ele>1075.0</ele><time>2026-04-29T09:57:23.852Z</time></trkpt><trkpt lat="40.07023922394068" lon="9.362091952085935"><ele>1088.0</ele><time>2026-04-29T09:57:24.852Z</time></trkpt><trkpt lat="40.07043451227676" lon="9.361997416663206"><ele>1101.0</ele><time>2026-04-29T09:57:25.852Z</time></trkpt><trkpt lat="40.07063027824664" lon="9.361903699992212"><ele>1102.0</ele><time>2026-04-29T09:57:26.852Z</time></trkpt><trkpt lat="40.07085607493676" lon="9.36179695141154"><ele>1103.0</ele><time>2026-04-29T09:57:27.99Z</time></trkpt><trkpt lat="40.071549725568694" lon="9.361328457566554"><ele>1111.3333333333335</ele><time>2026-04-29T09:57:31.866Z</time></trkpt><trkpt lat="40.07174519267288" lon="9.361225179510464"><ele>1119.6666666666667</ele><time>2026-04-29T09:57:32.866Z</time></trkpt><trkpt lat="40.071934261197676" lon="9.361101892692245"><ele>1128.0</ele><time>2026-04-29T09:57:33.866Z</time></trkpt><trkpt lat="40.07212895749281" lon="9.36099916751376"><ele>1128.0</ele><time>2026-04-29T09:57:34.863Z</time></trkpt><trkpt lat="40.07232496166624" lon="9.36089575227576"><ele>1128.0</ele><time>2026-04-29T09:57:35.866Z</time></trkpt><trkpt lat="40.07252605641901" lon="9.360813047983715"><ele>1128.0</ele><time>2026-04-29T09:57:36.864Z</time></trkpt><trkpt lat="40.072715703145" lon="9.360689590221575"><ele>1138.0</ele><time>2026-04-29T09:57:37.867Z</time></trkpt><trkpt lat="40.07291714092935" lon="9.360605973485736"><ele>1148.0</ele><time>2026-04-29T09:57:38.866Z</time></trkpt><trkpt lat="40.07310512790831" lon="9.360482541269546"><ele>1158.0</ele><time>2026-04-29T09:57:39.862Z</time></trkpt><trkpt lat="40.07330737985154" lon="9.360398368774511"><ele>1174.6666666666667</ele><time>2026-04-29T09:57:40.866Z</time></trkpt><trkpt lat="40.073496033786526" lon="9.360273939304115"><ele>1191.3333333333335</ele><time>2026-04-29T09:57:41.866Z</time></trkpt><trkpt lat="40.07369726784546" lon="9.360189443069624"><ele>1208.0</ele><time>2026-04-29T09:57:42.866Z</time></trkpt><trkpt lat="40.07389196155812" lon="9.360085002686441"><ele>1208.0</ele><time>2026-04-29T09:57:43.865Z</time></trkpt><trkpt lat="40.074086529038794" lon="9.359981544150845"><ele>1208.0</ele><time>2026-04-29T09:57:44.863Z</time></trkpt><trkpt lat="40.07427534888666" lon="9.359857908180848"><ele>1208.0</ele><time>2026-04-29T09:57:45.862Z</time></trkpt><trkpt lat="40.07447099654785" lon="9.359754064813474"><ele>1221.6666666666667</ele><time>2026-04-29T09:57:46.865Z</time></trkpt><trkpt lat="40.07467244367636" lon="9.359669247410737"><ele>1235.3333333333333</ele><time>2026-04-29T09:57:47.866Z</time></trkpt><trkpt lat="40.074859980445886" lon="9.35954403858942"><ele>1249.0</ele><time>2026-04-29T09:57:48.862Z</time></trkpt><trkpt lat="40.07505586431986" lon="9.359439778878318"><ele>1249.0</ele><time>2026-04-29T09:57:49.866Z</time></trkpt><trkpt lat="40.07525101889862" lon="9.359336816638638"><ele>1249.0</ele><time>2026-04-29T09:57:50.865Z</time></trkpt><trkpt lat="40.07544623151211" lon="9.359233823780228"><ele>1249.0</ele><time>2026-04-29T09:57:51.865Z</time></trkpt><trkpt lat="40.07564108839507" lon="9.35913101860284"><ele>1243.0</ele><time>2026-04-29T09:57:52.862Z</time></trkpt><trkpt lat="40.07584355470573" lon="9.359047596881075"><ele>1237.0</ele><time>2026-04-29T09:57:53.866Z</time></trkpt><trkpt lat="40.076038908360076" lon="9.358944529546648"><ele>1231.0</ele><time>2026-04-29T09:57:54.866Z</time></trkpt><trkpt lat="40.07622802691674" lon="9.358821353796978"><ele>1229.3333333333333</ele><time>2026-04-29T09:57:55.867Z</time></trkpt><trkpt lat="40.07642943038713" lon="9.358739923042972"><ele>1227.6666666666667</ele><time>2026-04-29T09:57:56.864Z</time></trkpt><trkpt lat="40.076625717139244" lon="9.358637956671904"><ele>1226.0</ele><time>2026-04-29T09:57:57.866Z</time></trkpt><trkpt lat="40.076815296800575" lon="9.35851608193885"><ele>1217.3333333333335</ele><time>2026-04-29T09:57:58.866Z</time></trkpt><trkpt lat="40.07701081966916" lon="9.358414467592455"><ele>1208.6666666666667</ele><time>2026-04-29T09:57:59.865Z</time></trkpt><trkpt lat="40.077212406735285" lon="9.358333050700175"><ele>1200.0</ele><time>2026-04-29T09:58:00.863Z</time></trkpt><trkpt lat="40.077408409364025" lon="9.358229736246994"><ele>1195.0</ele><time>2026-04-29T09:58:01.865Z</time></trkpt><trkpt lat="40.07759540061191" lon="9.358102335809843"><ele>1190.0</ele><time>2026-04-29T09:58:02.863Z</time></trkpt><trkpt lat="40.07778928605058" lon="9.357994682397267"><ele>1185.0</ele><time>2026-04-29T09:58:03.863Z</time></trkpt><trkpt lat="40.084958768415554" lon="9.35456317425769"><ele>1119.0</ele><time>2026-04-29T09:58:37.852Z</time></trkpt><trkpt lat="40.08516260982997" lon="9.354556132816217"><ele>1053.0</ele><time>2026-04-29T09:58:38.852Z</time></trkpt><trkpt lat="40.085548350464336" lon="9.354599934377607"><ele>1053.0</ele><time>2026-04-29T09:58:40.852Z</time></trkpt><trkpt lat="40.08575955679175" lon="9.354629408981245"><ele>1053.0</ele><time>2026-04-29T09:58:41.852Z</time></trkpt><trkpt lat="40.08597117193317" lon="9.354642578105016"><ele>1053.0</ele><time>2026-04-29T09:58:42.852Z</time></trkpt><trkpt lat="40.08618047804519" lon="9.354652645787686"><ele>1051.0</ele><time>2026-04-29T09:58:43.85Z</time></trkpt><trkpt lat="40.08638881316748" lon="9.354659900327933"><ele>1049.0</ele><time>2026-04-29T09:58:44.851Z</time></trkpt><trkpt lat="40.086602457936074" lon="9.35465234261452"><ele>1047.0</ele><time>2026-04-29T09:58:45.851Z</time></trkpt><trkpt lat="40.08681140158416" lon="9.35463112621155"><ele>1046.6666666666667</ele><time>2026-04-29T09:58:46.851Z</time></trkpt><trkpt lat="40.08701473236355" lon="9.354604175457"><ele>1046.3333333333335</ele><time>2026-04-29T09:58:47.85Z</time></trkpt><trkpt lat="40.08721514788938" lon="9.354554161445652"><ele>1046.0</ele><time>2026-04-29T09:58:48.85Z</time></trkpt><trkpt lat="40.087415402111176" lon="9.35449707003211"><ele>1042.0</ele><time>2026-04-29T09:58:49.851Z</time></trkpt><trkpt lat="40.087603429019374" lon="9.354403408788357"><ele>1038.0</ele><time>2026-04-29T09:58:50.85Z</time></trkpt><trkpt lat="40.087805702975395" lon="9.354316140131846"><ele>1034.0</ele><time>2026-04-29T09:58:51.85Z</time></trkpt><trkpt lat="40.088000787930085" lon="9.354222156632172"><ele>1034.0</ele><time>2026-04-29T09:58:52.851Z</time></trkpt><trkpt lat="40.088204090728944" lon="9.354107374708427"><ele>1034.0</ele><time>2026-04-29T09:58:53.85Z</time></trkpt><trkpt lat="40.08840347115036" lon="9.35398406650417"><ele>1034.0</ele><time>2026-04-29T09:58:54.85Z</time></trkpt><trkpt lat="40.08860494789454" lon="9.353851710432153"><ele>1032.5</ele><time>2026-04-29T09:58:55.85Z</time></trkpt><trkpt lat="40.088809270968014" lon="9.353715140289435"><ele>1031.0</ele><time>2026-04-29T09:58:56.851Z</time></trkpt><trkpt lat="40.089015986732164" lon="9.353593420748272"><ele>1037.0</ele><time>2026-04-29T09:58:57.851Z</time></trkpt><trkpt lat="40.08921868480037" lon="9.353471190367785"><ele>1043.0</ele><time>2026-04-29T09:58:58.851Z</time></trkpt><trkpt lat="40.089425570881794" lon="9.353339135395657"><ele>1043.0</ele><time>2026-04-29T09:58:59.851Z</time></trkpt><trkpt lat="40.08962526127436" lon="9.353212324193306"><ele>1043.0</ele><time>2026-04-29T09:59:00.851Z</time></trkpt><trkpt lat="40.08982504427968" lon="9.353085334547323"><ele>1043.0</ele><time>2026-04-29T09:59:01.851Z</time></trkpt><trkpt lat="40.09002413422402" lon="9.352956432199928"><ele>1037.5</ele><time>2026-04-29T09:59:02.851Z</time></trkpt><trkpt lat="40.0902303816444" lon="9.352833392931199"><ele>1032.0</ele><time>2026-04-29T09:59:03.851Z</time></trkpt><trkpt lat="40.090438981629376" lon="9.35272540502105"><ele>1032.0</ele><time>2026-04-29T09:59:04.851Z</time></trkpt><trkpt lat="40.09064611261696" lon="9.352626400455042"><ele>1032.0</ele><time>2026-04-29T09:59:05.851Z</time></trkpt><trkpt lat="40.09085298224994" lon="9.352540149599946"><ele>1032.0</ele><time>2026-04-29T09:59:06.851Z</time></trkpt><trkpt lat="40.091071076638755" lon="9.352459424948169"><ele>1034.0</ele><time>2026-04-29T09:59:07.851Z</time></trkpt><trkpt lat="40.091291876082586" lon="9.3523954092679"><ele>1036.0</ele><time>2026-04-29T09:59:08.851Z</time></trkpt><trkpt lat="40.09151684778713" lon="9.352340429450766"><ele>1036.5</ele><time>2026-04-29T09:59:09.851Z</time></trkpt><trkpt lat="40.091745320996715" lon="9.352301607701488"><ele>1037.0</ele><time>2026-04-29T09:59:10.851Z</time></trkpt><trkpt lat="40.09197695957183" lon="9.352280752808042"><ele>1037.0</ele><time>2026-04-29T09:59:11.851Z</time></trkpt><trkpt lat="40.09220858121378" lon="9.35226592171708"><ele>1037.0</ele><time>2026-04-29T09:59:12.851Z</time></trkpt><trkpt lat="40.09244157433093" lon="9.352261816021036"><ele>1031.0</ele><time>2026-04-29T09:59:13.851Z</time></trkpt><trkpt lat="40.0926750052233" lon="9.35226284353693"><ele>1025.0</ele><time>2026-04-29T09:59:14.851Z</time></trkpt><trkpt lat="40.09289846715759" lon="9.352267441303967"><ele>1025.0</ele><time>2026-04-29T09:59:15.851Z</time></trkpt><trkpt lat="40.09312467092467" lon="9.352262206037047"><ele>1025.0</ele><time>2026-04-29T09:59:16.851Z</time></trkpt><trkpt lat="40.09333974317099" lon="9.352257526839619"><ele>1025.0</ele><time>2026-04-29T09:59:17.851Z</time></trkpt><trkpt lat="40.093560400936354" lon="9.352242469126256"><ele>1017.6666666666667</ele><time>2026-04-29T09:59:18.851Z</time></trkpt><trkpt lat="40.09377939653815" lon="9.352232366388526"><ele>1010.3333333333333</ele><time>2026-04-29T09:59:19.851Z</time></trkpt><trkpt lat="40.093996213391584" lon="9.352219516653216"><ele>1003.0</ele><time>2026-04-29T09:59:20.851Z</time></trkpt><trkpt lat="40.094209016047316" lon="9.352202798847653"><ele>999.3333333333333</ele><time>2026-04-29T09:59:21.851Z</time></trkpt><trkpt lat="40.094422965943885" lon="9.352177174221612"><ele>995.6666666666667</ele><time>2026-04-29T09:59:22.851Z</time></trkpt><trkpt lat="40.09463546857994" lon="9.35213861864423"><ele>992.0</ele><time>2026-04-29T09:59:23.851Z</time></trkpt><trkpt lat="40.09484457635405" lon="9.3520919176799"><ele>995.0</ele><time>2026-04-29T09:59:24.851Z</time></trkpt><trkpt lat="40.095063043383774" lon="9.352027931979563"><ele>998.0</ele><time>2026-04-29T09:59:25.851Z</time></trkpt><trkpt lat="40.09527763430764" lon="9.351965741494459"><ele>1001.0</ele><time>2026-04-29T09:59:26.851Z</time></trkpt><trkpt lat="40.09549416756207" lon="9.351883680760848"><ele>1001.0</ele><time>2026-04-29T09:59:27.851Z</time></trkpt><trkpt lat="40.095711542417334" lon="9.351791552174664"><ele>1001.0</ele><time>2026-04-29T09:59:28.851Z</time></trkpt><trkpt lat="40.09592546152337" lon="9.351691530770811"><ele>1002.0</ele><time>2026-04-29T09:59:29.851Z</time></trkpt><trkpt lat="40.096137285001646" lon="9.351582625344205"><ele>1003.0</ele><time>2026-04-29T09:59:30.851Z</time></trkpt><trkpt lat="40.09634354889259" lon="9.351460533517942"><ele>1003.0</ele><time>2026-04-29T09:59:31.851Z</time></trkpt><trkpt lat="40.09654622116962" lon="9.351329934004935"><ele>1003.0</ele><time>2026-04-29T09:59:32.851Z</time></trkpt><trkpt lat="40.09675618746048" lon="9.351192509110792"><ele>1003.0</ele><time>2026-04-29T09:59:33.851Z</time></trkpt><trkpt lat="40.096958892602366" lon="9.351032978833613"><ele>1003.0</ele><time>2026-04-29T09:59:34.851Z</time></trkpt><trkpt lat="40.09715126925985" lon="9.35087507190729"><ele>1003.0</ele><time>2026-04-29T09:59:35.851Z</time></trkpt><trkpt lat="40.097335497532605" lon="9.35070748009907"><ele>1003.0</ele><time>2026-04-29T09:59:36.851Z</time></trkpt><trkpt lat="40.09752038020998" lon="9.350520326781204"><ele>994.0</ele><time>2026-04-29T09:59:37.851Z</time></trkpt><trkpt lat="40.09770151392253" lon="9.350331376374216"><ele>985.0</ele><time>2026-04-29T09:59:38.851Z</time></trkpt><trkpt lat="40.097877377802554" lon="9.350144003844727"><ele>985.0</ele><time>2026-04-29T09:59:39.851Z</time></trkpt><trkpt lat="40.09805343030398" lon="9.349954592853585"><ele>985.0</ele><time>2026-04-29T09:59:40.851Z</time></trkpt><trkpt lat="40.098235234554636" lon="9.349759043046722"><ele>983.5</ele><time>2026-04-29T09:59:41.851Z</time></trkpt><trkpt lat="40.09842016973399" lon="9.34957232759399"><ele>982.0</ele><time>2026-04-29T09:59:42.851Z</time></trkpt><trkpt lat="40.09860335765289" lon="9.349370419957408"><ele>982.0</ele><time>2026-04-29T09:59:43.851Z</time></trkpt><trkpt lat="40.098783897804026" lon="9.349180287773923"><ele>982.0</ele><time>2026-04-29T09:59:44.851Z</time></trkpt><trkpt lat="40.09896427741646" lon="9.348990313152592"><ele>982.0</ele><time>2026-04-29T09:59:45.851Z</time></trkpt><trkpt lat="40.09914437220445" lon="9.34880198283376"><ele>982.0</ele><time>2026-04-29T09:59:46.851Z</time></trkpt><trkpt lat="40.099323786168874" lon="9.34861064666464"><ele>982.0</ele><time>2026-04-29T09:59:47.851Z</time></trkpt><trkpt lat="40.099495092639906" lon="9.348420626459353"><ele>982.0</ele><time>2026-04-29T09:59:48.851Z</time></trkpt><trkpt lat="40.099665884925955" lon="9.348235686161914"><ele>982.0</ele><time>2026-04-29T09:59:49.851Z</time></trkpt><trkpt lat="40.0998379191562" lon="9.34805569014291"><ele>982.0</ele><time>2026-04-29T09:59:50.851Z</time></trkpt><trkpt lat="40.1000119854224" lon="9.347892542429275"><ele>982.0</ele><time>2026-04-29T09:59:51.851Z</time></trkpt><trkpt lat="40.10019251489802" lon="9.347731895490906"><ele>982.0</ele><time>2026-04-29T09:59:52.851Z</time></trkpt><trkpt lat="40.100381865814455" lon="9.347575697111616"><ele>982.0</ele><time>2026-04-29T09:59:53.851Z</time></trkpt><trkpt lat="40.100573795498825" lon="9.347423649947155"><ele>982.0</ele><time>2026-04-29T09:59:54.851Z</time></trkpt><trkpt lat="40.10076748620654" lon="9.347278663897068"><ele>982.0</ele><time>2026-04-29T09:59:55.851Z</time></trkpt><trkpt lat="40.100962794280115" lon="9.347134642417098"><ele>978.5</ele><time>2026-04-29T09:59:56.851Z</time></trkpt><trkpt lat="40.10116405720764" lon="9.346990193848645"><ele>975.0</ele><time>2026-04-29T09:59:57.851Z</time></trkpt><trkpt lat="40.10136353268123" lon="9.346845518599334"><ele>975.0</ele><time>2026-04-29T09:59:58.851Z</time></trkpt><trkpt lat="40.10155505100715" lon="9.346719189844293"><ele>975.0</ele><time>2026-04-29T09:59:59.851Z</time></trkpt><trkpt lat="40.101733892583646" lon="9.346611352994646"><ele>975.0</ele><time>2026-04-29T10:00:00.851Z</time></trkpt><trkpt lat="40.10190129554578" lon="9.34651366970038"><ele>977.0</ele><time>2026-04-29T10:00:01.851Z</time></trkpt><trkpt lat="40.10206494142871" lon="9.346407453993573"><ele>979.0</ele><time>2026-04-29T10:00:02.851Z</time></trkpt><trkpt lat="40.10220837484195" lon="9.346321258796163"><ele>981.0</ele><time>2026-04-29T10:00:03.851Z</time></trkpt><trkpt lat="40.102350852009685" lon="9.346237628070423"><ele>977.0</ele><time>2026-04-29T10:00:04.851Z</time></trkpt><trkpt lat="40.102484380368665" lon="9.346158147110577"><ele>973.0</ele><time>2026-04-29T10:00:05.851Z</time></trkpt><trkpt lat="40.10260811995144" lon="9.346078650879921"><ele>969.0</ele><time>2026-04-29T10:00:06.851Z</time></trkpt><trkpt lat="40.10273105197867" lon="9.346003508114197"><ele>965.0</ele><time>2026-04-29T10:00:07.851Z</time></trkpt><trkpt lat="40.10284569878312" lon="9.345929593250077"><ele>965.0</ele><time>2026-04-29T10:00:08.851Z</time></trkpt><trkpt lat="40.10294869910877" lon="9.345860185119676"><ele>965.0</ele><time>2026-04-29T10:00:09.851Z</time></trkpt><trkpt lat="40.10304110012015" lon="9.345819098420689"><ele>965.0</ele><time>2026-04-29T10:00:10.851Z</time></trkpt><trkpt lat="40.103126201308" lon="9.345784386352268"><ele>965.0</ele><time>2026-04-29T10:00:11.851Z</time></trkpt><trkpt lat="40.10321058986307" lon="9.345776113877452"><ele>965.0</ele><time>2026-04-29T10:00:12.851Z</time></trkpt><trkpt lat="40.1032821089211" lon="9.34579753363093"><ele>966.4</ele><time>2026-04-29T10:00:13.851Z</time></trkpt><trkpt lat="40.10334855131917" lon="9.345858359351725"><ele>967.8</ele><time>2026-04-29T10:00:14.851Z</time></trkpt><trkpt lat="40.103405311612775" lon="9.345953278768324"><ele>969.2</ele><time>2026-04-29T10:00:15.851Z</time></trkpt><trkpt lat="40.10344186388529" lon="9.346060110019357"><ele>970.6</ele><time>2026-04-29T10:00:16.851Z</time></trkpt><trkpt lat="40.103449771084044" lon="9.346175954485638"><ele>972.0</ele><time>2026-04-29T10:00:17.851Z</time></trkpt><trkpt lat="40.103424003040615" lon="9.346309096721354"><ele>972.2</ele><time>2026-04-29T10:00:18.851Z</time></trkpt><trkpt lat="40.10340390611675" lon="9.346427481196807"><ele>972.4000000000001</ele><time>2026-04-29T10:00:19.851Z</time></trkpt><trkpt lat="40.103307742561306" lon="9.346509390492601"><ele>972.5999999999999</ele><time>2026-04-29T10:00:20.851Z</time></trkpt><trkpt lat="40.1032319143333" lon="9.346587687600433"><ele>972.8</ele><time>2026-04-29T10:00:21.851Z</time></trkpt><trkpt lat="40.10314495289812" lon="9.34664467337704"><ele>973.0</ele><time>2026-04-29T10:00:22.851Z</time></trkpt><trkpt lat="40.103046297602596" lon="9.346683010179639"><ele>973.0</ele><time>2026-04-29T10:00:23.851Z</time></trkpt><trkpt lat="40.10294044561391" lon="9.346694613181446"><ele>973.0</ele><time>2026-04-29T10:00:24.851Z</time></trkpt><trkpt lat="40.10281951027672" lon="9.346662355385115"><ele>973.0</ele><time>2026-04-29T10:00:25.851Z</time></trkpt><trkpt lat="40.10271774206671" lon="9.346617088253206"><ele>973.0</ele><time>2026-04-29T10:00:26.851Z</time></trkpt><trkpt lat="40.10263014981743" lon="9.346548556822366"><ele>973.0</ele><time>2026-04-29T10:00:27.851Z</time></trkpt><trkpt lat="40.10256434396529" lon="9.346447225181738"><ele>971.4</ele><time>2026-04-29T10:00:28.851Z</time></trkpt><trkpt lat="40.102511465949384" lon="9.346326496554104"><ele>969.8</ele><time>2026-04-29T10:00:29.851Z</time></trkpt><trkpt lat="40.10247492075456" lon="9.346183786211661"><ele>968.2</ele><time>2026-04-29T10:00:30.851Z</time></trkpt><trkpt lat="40.10246296221096" lon="9.346046770329142"><ele>966.6</ele><time>2026-04-29T10:00:31.851Z</time></trkpt><trkpt lat="40.10246518637341" lon="9.345907175788685"><ele>965.0</ele><time>2026-04-29T10:00:32.851Z</time></trkpt><trkpt lat="40.102503848327466" lon="9.345755219227179"><ele>965.0</ele><time>2026-04-29T10:00:33.851Z</time></trkpt><trkpt lat="40.10256247247704" lon="9.34560051531387"><ele>965.0</ele><time>2026-04-29T10:00:34.851Z</time></trkpt><trkpt lat="40.102631575524725" lon="9.345454207224272"><ele>965.0</ele><time>2026-04-29T10:00:35.851Z</time></trkpt><trkpt lat="40.102705788406446" lon="9.345293468726513"><ele>965.0</ele><time>2026-04-29T10:00:36.851Z</time></trkpt><trkpt lat="40.10279803600737" lon="9.345127128575543"><ele>963.3333333333334</ele><time>2026-04-29T10:00:37.851Z</time></trkpt><trkpt lat="40.10288984624873" lon="9.344960477276144"><ele>961.6666666666667</ele><time>2026-04-29T10:00:38.851Z</time></trkpt><trkpt lat="40.10298211665622" lon="9.344805784771346"><ele>960.0</ele><time>2026-04-29T10:00:39.851Z</time></trkpt><trkpt lat="40.103073485564046" lon="9.344655490278216"><ele>959.0</ele><time>2026-04-29T10:00:40.851Z</time></trkpt><trkpt lat="40.10315326157646" lon="9.344510039217901"><ele>958.0</ele><time>2026-04-29T10:00:41.851Z</time></trkpt><trkpt lat="40.10325471104753" lon="9.344411552577961"><ele>957.0</ele><time>2026-04-29T10:00:42.851Z</time></trkpt><trkpt lat="40.10333309545262" lon="9.344303427905098"><ele>956.0</ele><time>2026-04-29T10:00:43.851Z</time></trkpt><trkpt lat="40.10341245227488" lon="9.344207200681486"><ele>955.75</ele><time>2026-04-29T10:00:44.851Z</time></trkpt><trkpt lat="40.10350424191862" lon="9.344110518271314"><ele>955.5</ele><time>2026-04-29T10:00:45.851Z</time></trkpt><trkpt lat="40.10359698464987" lon="9.344030786910807"><ele>955.25</ele><time>2026-04-29T10:00:46.851Z</time></trkpt><trkpt lat="40.10371197733933" lon="9.34393708165806"><ele>955.0</ele><time>2026-04-29T10:00:47.851Z</time></trkpt><trkpt lat="40.103834573269346" lon="9.343855071967353"><ele>954.5</ele><time>2026-04-29T10:00:48.851Z</time></trkpt><trkpt lat="40.10396380889401" lon="9.34377465951611"><ele>954.0</ele><time>2026-04-29T10:00:49.85Z</time></trkpt><trkpt lat="40.10409830323435" lon="9.34370358512479"><ele>953.5</ele><time>2026-04-29T10:00:50.85Z</time></trkpt><trkpt lat="40.104223139186466" lon="9.343593989622082"><ele>953.0</ele><time>2026-04-29T10:00:51.85Z</time></trkpt><trkpt lat="40.10438876830966" lon="9.343557874440975"><ele>952.6666666666667</ele><time>2026-04-29T10:00:52.85Z</time></trkpt><trkpt lat="40.104539816887474" lon="9.343493498665266"><ele>952.3333333333333</ele><time>2026-04-29T10:00:53.85Z</time></trkpt><trkpt lat="40.104696368548986" lon="9.343444987806116"><ele>952.0</ele><time>2026-04-29T10:00:54.85Z</time></trkpt><trkpt lat="40.1048679990843" lon="9.343373144298953"><ele>952.6666666666666</ele><time>2026-04-29T10:00:55.85Z</time></trkpt><trkpt lat="40.105043078178845" lon="9.343304048258522"><ele>953.3333333333333</ele><time>2026-04-29T10:00:56.85Z</time></trkpt><trkpt lat="40.105198860748885" lon="9.343245244771344"><ele>954.0</ele><time>2026-04-29T10:00:57.85Z</time></trkpt><trkpt lat="40.10534027253087" lon="9.343177568154845"><ele>954.0</ele><time>2026-04-29T10:00:58.849Z</time></trkpt><trkpt lat="40.105460220178365" lon="9.343110202625109"><ele>954.0</ele><time>2026-04-29T10:00:59.849Z</time></trkpt><trkpt lat="40.105553643695956" lon="9.343015850637347"><ele>954.0</ele><time>2026-04-29T10:01:00.849Z</time></trkpt><trkpt lat="40.10565060848915" lon="9.342893734520565"><ele>954.0</ele><time>2026-04-29T10:01:01.849Z</time></trkpt><trkpt lat="40.10575363511271" lon="9.342768246325095"><ele>953.75</ele><time>2026-04-29T10:01:02.849Z</time></trkpt><trkpt lat="40.105862395770465" lon="9.342661934010147"><ele>953.5</ele><time>2026-04-29T10:01:03.849Z</time></trkpt><trkpt lat="40.10598761620651" lon="9.342574975376023"><ele>953.25</ele><time>2026-04-29T10:01:04.849Z</time></trkpt><trkpt lat="40.106123187595294" lon="9.342506939038898"><ele>953.0</ele><time>2026-04-29T10:01:05.849Z</time></trkpt><trkpt lat="40.10627657612628" lon="9.342463638236227"><ele>953.0</ele><time>2026-04-29T10:01:06.849Z</time></trkpt><trkpt lat="40.106444955328996" lon="9.342451332156923"><ele>953.0</ele><time>2026-04-29T10:01:07.849Z</time></trkpt><trkpt lat="40.106615370918774" lon="9.342375074826721"><ele>953.0</ele><time>2026-04-29T10:01:08.849Z</time></trkpt><trkpt lat="40.10678914817433" lon="9.34229705934875"><ele>951.0</ele><time>2026-04-29T10:01:09.849Z</time></trkpt><trkpt lat="40.10695638160862" lon="9.34220820040631"><ele>949.0</ele><time>2026-04-29T10:01:10.849Z</time></trkpt><trkpt lat="40.10712686693341" lon="9.342105782439647"><ele>947.0</ele><time>2026-04-29T10:01:11.849Z</time></trkpt><trkpt lat="40.1072999720008" lon="9.3419815187163"><ele>947.3333333333334</ele><time>2026-04-29T10:01:12.849Z</time></trkpt><trkpt lat="40.10746938052292" lon="9.341842666443117"><ele>947.6666666666667</ele><time>2026-04-29T10:01:13.849Z</time></trkpt><trkpt lat="40.1076363769774" lon="9.341700548445084"><ele>948.0</ele><time>2026-04-29T10:01:14.849Z</time></trkpt><trkpt lat="40.10780974048214" lon="9.341554146362794"><ele>948.0</ele><time>2026-04-29T10:01:15.849Z</time></trkpt><trkpt lat="40.10798418864649" lon="9.34141035056009"><ele>948.0</ele><time>2026-04-29T10:01:16.849Z</time></trkpt><trkpt lat="40.1081568233707" lon="9.341269923655489"><ele>948.0</ele><time>2026-04-29T10:01:17.849Z</time></trkpt><trkpt lat="40.108331293561335" lon="9.34114304167505"><ele>947.3333333333333</ele><time>2026-04-29T10:01:18.849Z</time></trkpt><trkpt lat="40.10850600361551" lon="9.34102086656163"><ele>946.6666666666666</ele><time>2026-04-29T10:01:19.849Z</time></trkpt><trkpt lat="40.108682663627036" lon="9.340887246452986"><ele>946.0</ele><time>2026-04-29T10:01:20.849Z</time></trkpt><trkpt lat="40.108857432052666" lon="9.340757376659823"><ele>946.0</ele><time>2026-04-29T10:01:21.849Z</time></trkpt><trkpt lat="40.10903673384996" lon="9.340631264190742"><ele>946.0</ele><time>2026-04-29T10:01:22.849Z</time></trkpt><trkpt lat="40.109213159076184" lon="9.340504740035193"><ele>946.0</ele><time>2026-04-29T10:01:23.849Z</time></trkpt><trkpt lat="40.10938977431233" lon="9.340382837930715"><ele>944.6666666666666</ele><time>2026-04-29T10:01:24.849Z</time></trkpt><trkpt lat="40.109557888769864" lon="9.340265628944156"><ele>943.3333333333333</ele><time>2026-04-29T10:01:25.849Z</time></trkpt><trkpt lat="40.10972865935182" lon="9.340165218389886"><ele>942.0</ele><time>2026-04-29T10:01:26.849Z</time></trkpt><trkpt lat="40.10988979125757" lon="9.340069671045425"><ele>943.6666666666667</ele><time>2026-04-29T10:01:27.849Z</time></trkpt><trkpt lat="40.110056769082384" lon="9.339970547934696"><ele>945.3333333333334</ele><time>2026-04-29T10:01:28.849Z</time></trkpt><trkpt lat="40.11021900074569" lon="9.339876612254004"><ele>947.0</ele><time>2026-04-29T10:01:29.849Z</time></trkpt><trkpt lat="40.11034989043099" lon="9.339723568174183"><ele>946.3333333333334</ele><time>2026-04-29T10:01:30.849Z</time></trkpt><trkpt lat="40.11048399032252" lon="9.33957534923274"><ele>945.6666666666667</ele><time>2026-04-29T10:01:31.849Z</time></trkpt><trkpt lat="40.11061776310869" lon="9.33942851329073"><ele>945.0</ele><time>2026-04-29T10:01:32.849Z</time></trkpt><trkpt lat="40.11076159047884" lon="9.339300315748744"><ele>945.0</ele><time>2026-04-29T10:01:33.849Z</time></trkpt><trkpt lat="40.11089453894638" lon="9.339188756824953"><ele>945.0</ele><time>2026-04-29T10:01:34.849Z</time></trkpt><trkpt lat="40.11103701573169" lon="9.33906694178932"><ele>945.0</ele><time>2026-04-29T10:01:35.849Z</time></trkpt><trkpt lat="40.11117005052211" lon="9.338952845458103"><ele>944.0</ele><time>2026-04-29T10:01:36.849Z</time></trkpt><trkpt lat="40.111296753013924" lon="9.338829123568006"><ele>943.0</ele><time>2026-04-29T10:01:37.849Z</time></trkpt><trkpt lat="40.11144755779744" lon="9.33873572549561"><ele>942.0</ele><time>2026-04-29T10:01:38.849Z</time></trkpt><trkpt lat="40.11160596427238" lon="9.338679705274322"><ele>942.0</ele><time>2026-04-29T10:01:39.849Z</time></trkpt><trkpt lat="40.11176061461344" lon="9.338612388969633"><ele>942.0</ele><time>2026-04-29T10:01:40.849Z</time></trkpt><trkpt lat="40.111911942530185" lon="9.338532173953602"><ele>942.0</ele><time>2026-04-29T10:01:41.849Z</time></trkpt><trkpt lat="40.11205983457133" lon="9.338427777216799"><ele>942.0</ele><time>2026-04-29T10:01:42.849Z</time></trkpt><trkpt lat="40.112189004017694" lon="9.33832591738876"><ele>942.0</ele><time>2026-04-29T10:01:43.849Z</time></trkpt><trkpt lat="40.11229923651018" lon="9.338240045838523"><ele>942.0</ele><time>2026-04-29T10:01:44.849Z</time></trkpt><trkpt lat="40.11239736753522" lon="9.338170546694366"><ele>942.0</ele><time>2026-04-29T10:01:45.849Z</time></trkpt><trkpt lat="40.112491294637145" lon="9.338114696976435"><ele>941.4000000000001</ele><time>2026-04-29T10:01:46.849Z</time></trkpt><trkpt lat="40.112594676374705" lon="9.338064223627919"><ele>940.8000000000001</ele><time>2026-04-29T10:01:47.849Z</time></trkpt><trkpt lat="40.112665222329305" lon="9.338028899102001"><ele>940.2</ele><time>2026-04-29T10:01:48.849Z</time></trkpt><trkpt lat="40.11277667824982" lon="9.3380125813085"><ele>939.6</ele><time>2026-04-29T10:01:50.849Z</time></trkpt><trkpt lat="40.11271654635847" lon="9.337956812770392"><ele>939.0</ele><time>2026-04-29T10:01:53.849Z</time></trkpt><trkpt lat="40.11262527260747" lon="9.337924367602916"><ele>939.0</ele><time>2026-04-29T10:01:54.849Z</time></trkpt><trkpt lat="40.11253285871758" lon="9.337906212042526"><ele>939.0</ele><time>2026-04-29T10:01:55.849Z</time></trkpt><trkpt lat="40.11331478918434" lon="9.337661503630413"><ele>939.6666666666666</ele><time>2026-04-29T10:01:56.849Z</time></trkpt><trkpt lat="40.11329801598885" lon="9.337575720746214"><ele>940.3333333333333</ele><time>2026-04-29T10:02:16.849Z</time></trkpt><trkpt lat="40.11336472638026" lon="9.337614819087031"><ele>941.0</ele><time>2026-04-29T10:03:48.859Z</time></trkpt><trkpt lat="40.113421927635564" lon="9.337690834780723"><ele>941.6666666666666</ele><time>2026-04-29T10:03:50.859Z</time></trkpt><trkpt lat="40.11342670042905" lon="9.337808194002953"><ele>942.3333333333333</ele><time>2026-04-29T10:03:52.859Z</time></trkpt><trkpt lat="40.113472039302955" lon="9.337918287255018"><ele>943.0</ele><time>2026-04-29T10:03:54.859Z</time></trkpt><trkpt lat="40.11350680047461" lon="9.338015203400857"><ele>944.1666666666666</ele><time>2026-04-29T10:03:55.859Z</time></trkpt><trkpt lat="40.11353060113496" lon="9.338154322076083"><ele>945.3333333333333</ele><time>2026-04-29T10:03:57.859Z</time></trkpt><trkpt lat="40.113475025226805" lon="9.338242815814414"><ele>946.5</ele><time>2026-04-29T10:03:59.859Z</time></trkpt><trkpt lat="40.113410897636875" lon="9.338291282103196"><ele>947.6666666666667</ele><time>2026-04-29T10:04:01.859Z</time></trkpt><trkpt lat="40.11342319268707" lon="9.338390853415795"><ele>948.8333333333334</ele><time>2026-04-29T10:04:04.859Z</time></trkpt><trkpt lat="40.11344822441414" lon="9.338495058342607"><ele>950.0</ele><time>2026-04-29T10:04:07.859Z</time></trkpt><trkpt lat="40.11354344580326" lon="9.338694520348662"><ele>950.0000000000001</ele><time>2026-04-29T10:04:10.859Z</time></trkpt><trkpt lat="40.1135950790101" lon="9.338804251883314"><ele>950.0</ele><time>2026-04-29T10:04:11.859Z</time></trkpt><trkpt lat="40.1136261289783" lon="9.338903041635744"><ele>950.0</ele><time>2026-04-29T10:04:12.859Z</time></trkpt><trkpt lat="40.11368880271284" lon="9.338999025856499"><ele>950.0</ele><time>2026-04-29T10:04:13.859Z</time></trkpt><trkpt lat="40.11372481122387" lon="9.339072497758174"><ele>950.0000000000001</ele><time>2026-04-29T10:04:14.859Z</time></trkpt><trkpt lat="40.1137793639041" lon="9.339187449292499"><ele>950.0</ele><time>2026-04-29T10:04:16.859Z</time></trkpt><trkpt lat="40.113834124049255" lon="9.339296636991518"><ele>952.0</ele><time>2026-04-29T10:04:18.859Z</time></trkpt><trkpt lat="40.11389006667278" lon="9.33944667862171"><ele>954.0</ele><time>2026-04-29T10:04:20.859Z</time></trkpt><trkpt lat="40.113930141341015" lon="9.339515285050839"><ele>956.0</ele><time>2026-04-29T10:04:21.859Z</time></trkpt><trkpt lat="40.11396701865401" lon="9.339652930420419"><ele>958.0</ele><time>2026-04-29T10:04:23.859Z</time></trkpt><trkpt lat="40.11400057926248" lon="9.339724121417499"><ele>960.0</ele><time>2026-04-29T10:04:24.859Z</time></trkpt><trkpt lat="40.11406211076487" lon="9.339851868458782"><ele>964.0</ele><time>2026-04-29T10:04:26.859Z</time></trkpt><trkpt lat="40.11414410564681" lon="9.339960691794886"><ele>968.0</ele><time>2026-04-29T10:04:28.859Z</time></trkpt><trkpt lat="40.114230071250205" lon="9.34015554491867"><ele>972.0</ele><time>2026-04-29T10:04:30.859Z</time></trkpt><trkpt lat="40.11427612555984" lon="9.340230488716072"><ele>976.0</ele><time>2026-04-29T10:04:31.859Z</time></trkpt><trkpt lat="40.11434880247855" lon="9.340321783168049"><ele>976.0</ele><time>2026-04-29T10:04:32.859Z</time></trkpt><trkpt lat="40.11440873286949" lon="9.340377976986495"><ele>975.9999999999999</ele><time>2026-04-29T10:04:33.859Z</time></trkpt><trkpt lat="40.11451294719347" lon="9.340442525160062"><ele>975.9999999999999</ele><time>2026-04-29T10:04:35.859Z</time></trkpt><trkpt lat="40.114610270902794" lon="9.340530485724534"><ele>976.0</ele><time>2026-04-29T10:04:36.859Z</time></trkpt><trkpt lat="40.114678408051965" lon="9.34058445745958"><ele>976.0</ele><time>2026-04-29T10:04:37.859Z</time></trkpt><trkpt lat="40.11473245453063" lon="9.340644844976886"><ele>975.8333333333333</ele><time>2026-04-29T10:04:38.859Z</time></trkpt><trkpt lat="40.114779445143895" lon="9.34070210846255"><ele>975.6666666666666</ele><time>2026-04-29T10:04:39.859Z</time></trkpt><trkpt lat="40.114815802221116" lon="9.340772879011649"><ele>975.5</ele><time>2026-04-29T10:04:40.859Z</time></trkpt><trkpt lat="40.1148704775295" lon="9.340849544326819"><ele>975.3333333333333</ele><time>2026-04-29T10:04:41.859Z</time></trkpt><trkpt lat="40.11493046954244" lon="9.340936337371613"><ele>975.1666666666666</ele><time>2026-04-29T10:04:42.859Z</time></trkpt><trkpt lat="40.11498564800331" lon="9.34104412777295"><ele>975.0</ele><time>2026-04-29T10:04:43.859Z</time></trkpt><trkpt lat="40.11503881231724" lon="9.341132687247407"><ele>975.0</ele><time>2026-04-29T10:04:44.859Z</time></trkpt><trkpt lat="40.115070894488404" lon="9.341267387400817"><ele>975.0</ele><time>2026-04-29T10:04:46.859Z</time></trkpt><trkpt lat="40.11509044867748" lon="9.341385544181101"><ele>975.0</ele><time>2026-04-29T10:04:47.859Z</time></trkpt><trkpt lat="40.11520114210094" lon="9.341524936577846"><ele>975.0</ele><time>2026-04-29T10:04:49.859Z</time></trkpt><trkpt lat="40.11526204309802" lon="9.341558006023067"><ele>975.0</ele><time>2026-04-29T10:04:50.859Z</time></trkpt><trkpt lat="40.11533303429248" lon="9.341555239646127"><ele>975.6666666666666</ele><time>2026-04-29T10:04:51.859Z</time></trkpt><trkpt lat="40.11543859936088" lon="9.341553018642724"><ele>976.3333333333333</ele><time>2026-04-29T10:04:52.859Z</time></trkpt><trkpt lat="40.11553183409663" lon="9.341549178268822"><ele>977.0</ele><time>2026-04-29T10:04:53.859Z</time></trkpt><trkpt lat="40.11561242195527" lon="9.341551921491636"><ele>977.6666666666666</ele><time>2026-04-29T10:04:54.859Z</time></trkpt><trkpt lat="40.11568654198132" lon="9.341540676514681"><ele>978.3333333333333</ele><time>2026-04-29T10:04:55.859Z</time></trkpt><trkpt lat="40.11576461189961" lon="9.341531169221897"><ele>979.0</ele><time>2026-04-29T10:04:56.859Z</time></trkpt><trkpt lat="40.11586452329884" lon="9.341542406181235"><ele>979.1666666666666</ele><time>2026-04-29T10:04:57.859Z</time></trkpt><trkpt lat="40.115960013135656" lon="9.341543184461772"><ele>979.3333333333333</ele><time>2026-04-29T10:04:58.859Z</time></trkpt><trkpt lat="40.11604631882951" lon="9.34153682045322"><ele>979.5</ele><time>2026-04-29T10:04:59.86Z</time></trkpt><trkpt lat="40.11612942136201" lon="9.34155364657301"><ele>979.6666666666667</ele><time>2026-04-29T10:05:00.859Z</time></trkpt><trkpt lat="40.11622193319631" lon="9.341555275169586"><ele>979.8333333333334</ele><time>2026-04-29T10:05:01.859Z</time></trkpt><trkpt lat="40.11629328569251" lon="9.341521288923824"><ele>980.0</ele><time>2026-04-29T10:05:02.859Z</time></trkpt><trkpt lat="40.11639164832371" lon="9.34144765009917"><ele>980.0</ele><time>2026-04-29T10:05:04.859Z</time></trkpt><trkpt lat="40.11648517471178" lon="9.341436547462866"><ele>980.0</ele><time>2026-04-29T10:05:06.859Z</time></trkpt><trkpt lat="40.11662129150985" lon="9.341398769695028"><ele>980.0</ele><time>2026-04-29T10:05:09.859Z</time></trkpt><trkpt lat="40.116705334677306" lon="9.341391934875679"><ele>980.0</ele><time>2026-04-29T10:05:10.859Z</time></trkpt><trkpt lat="40.11680640724239" lon="9.34140062328081"><ele>980.0</ele><time>2026-04-29T10:05:11.859Z</time></trkpt><trkpt lat="40.11689955694288" lon="9.3414007626947"><ele>980.0000000000001</ele><time>2026-04-29T10:05:12.859Z</time></trkpt><trkpt lat="40.11699102302628" lon="9.34137381636636"><ele>980.0</ele><time>2026-04-29T10:05:13.859Z</time></trkpt><trkpt lat="40.11706883915079" lon="9.3413575966216"><ele>980.0</ele><time>2026-04-29T10:05:14.859Z</time></trkpt><trkpt lat="40.11715544938449" lon="9.341343801042191"><ele>980.0</ele><time>2026-04-29T10:05:15.859Z</time></trkpt><trkpt lat="40.11723638182782" lon="9.34132082683038"><ele>980.0000000000001</ele><time>2026-04-29T10:05:16.859Z</time></trkpt><trkpt lat="40.11733552452404" lon="9.341313241952836"><ele>980.0</ele><time>2026-04-29T10:05:17.859Z</time></trkpt><trkpt lat="40.11742471332191" lon="9.341300036686112"><ele>980.4</ele><time>2026-04-29T10:05:18.859Z</time></trkpt><trkpt lat="40.11749993600008" lon="9.34129540591616"><ele>980.8</ele><time>2026-04-29T10:05:19.859Z</time></trkpt><trkpt lat="40.11759030481176" lon="9.341270690381613"><ele>981.2</ele><time>2026-04-29T10:05:20.859Z</time></trkpt><trkpt lat="40.11768708178408" lon="9.341251270897022"><ele>981.6</ele><time>2026-04-29T10:05:21.859Z</time></trkpt><trkpt lat="40.11778104195434" lon="9.341251879710406"><ele>982.0</ele><time>2026-04-29T10:05:22.859Z</time></trkpt><trkpt lat="40.11788151681597" lon="9.341257352397351"><ele>982.0</ele><time>2026-04-29T10:05:23.859Z</time></trkpt><trkpt lat="40.117978744628914" lon="9.34126392489194"><ele>982.0</ele><time>2026-04-29T10:05:24.859Z</time></trkpt><trkpt lat="40.11805955418646" lon="9.341279378442248"><ele>982.0</ele><time>2026-04-29T10:05:25.859Z</time></trkpt><trkpt lat="40.118140267477855" lon="9.34122051434638"><ele>982.0</ele><time>2026-04-29T10:05:26.859Z</time></trkpt><trkpt lat="40.11823892766645" lon="9.341172520279466"><ele>982.0</ele><time>2026-04-29T10:05:27.859Z</time></trkpt><trkpt lat="40.11833990563831" lon="9.341107642611309"><ele>983.5</ele><time>2026-04-29T10:05:28.859Z</time></trkpt><trkpt lat="40.118452094668804" lon="9.341059049241958"><ele>985.0</ele><time>2026-04-29T10:05:29.859Z</time></trkpt><trkpt lat="40.11855410000318" lon="9.341004539001355"><ele>986.5</ele><time>2026-04-29T10:05:30.859Z</time></trkpt><trkpt lat="40.11868001390696" lon="9.340947189926954"><ele>988.0</ele><time>2026-04-29T10:05:31.859Z</time></trkpt><trkpt lat="40.118799620968154" lon="9.340869279075175"><ele>988.0</ele><time>2026-04-29T10:05:32.859Z</time></trkpt><trkpt lat="40.11892118449924" lon="9.340813345987696"><ele>988.0</ele><time>2026-04-29T10:05:33.859Z</time></trkpt><trkpt lat="40.11904241746842" lon="9.340770108589636"><ele>988.0</ele><time>2026-04-29T10:05:34.859Z</time></trkpt><trkpt lat="40.1191392153713" lon="9.340729217401654"><ele>988.0</ele><time>2026-04-29T10:05:35.859Z</time></trkpt><trkpt lat="40.11923947253528" lon="9.340704971832002"><ele>989.25</ele><time>2026-04-29T10:05:36.859Z</time></trkpt><trkpt lat="40.11934522871858" lon="9.34068290600158"><ele>990.5</ele><time>2026-04-29T10:05:37.859Z</time></trkpt><trkpt lat="40.11946231023066" lon="9.340711376393074"><ele>991.75</ele><time>2026-04-29T10:05:38.859Z</time></trkpt><trkpt lat="40.119602515612726" lon="9.340730961889953"><ele>993.0</ele><time>2026-04-29T10:05:39.859Z</time></trkpt><trkpt lat="40.11974289693176" lon="9.340727957869582"><ele>993.0</ele><time>2026-04-29T10:05:40.859Z</time></trkpt><trkpt lat="40.11989051500203" lon="9.340747936236392"><ele>993.0</ele><time>2026-04-29T10:05:41.859Z</time></trkpt><trkpt lat="40.120031002008155" lon="9.340763178158006"><ele>993.0</ele><time>2026-04-29T10:05:42.859Z</time></trkpt><trkpt lat="40.120167941663084" lon="9.340775895549845"><ele>993.0</ele><time>2026-04-29T10:05:43.859Z</time></trkpt><trkpt lat="40.1202847845403" lon="9.340780484298861"><ele>992.75</ele><time>2026-04-29T10:05:44.859Z</time></trkpt><trkpt lat="40.120397346920925" lon="9.340789652035186"><ele>992.5</ele><time>2026-04-29T10:05:45.859Z</time></trkpt><trkpt lat="40.120514829256564" lon="9.340810461198634"><ele>992.25</ele><time>2026-04-29T10:05:46.859Z</time></trkpt><trkpt lat="40.12065446432583" lon="9.34077634010317"><ele>992.0</ele><time>2026-04-29T10:05:47.859Z</time></trkpt><trkpt lat="40.120775127622544" lon="9.340739327605464"><ele>992.0</ele><time>2026-04-29T10:05:48.859Z</time></trkpt><trkpt lat="40.120892942572674" lon="9.340712184791377"><ele>992.0</ele><time>2026-04-29T10:05:49.859Z</time></trkpt><trkpt lat="40.121002570050905" lon="9.340698364840216"><ele>992.0</ele><time>2026-04-29T10:05:50.859Z</time></trkpt><trkpt lat="40.121111429721886" lon="9.340673745470848"><ele>992.0</ele><time>2026-04-29T10:05:51.859Z</time></trkpt><trkpt lat="40.12121256390638" lon="9.340693872714878"><ele>992.0</ele><time>2026-04-29T10:05:52.859Z</time></trkpt><trkpt lat="40.12134750409862" lon="9.340695267701626"><ele>992.0</ele><time>2026-04-29T10:05:53.859Z</time></trkpt><trkpt lat="40.12149009445695" lon="9.340673244185185"><ele>992.0</ele><time>2026-04-29T10:05:54.859Z</time></trkpt><trkpt lat="40.12161120558923" lon="9.340664969169547"><ele>992.0</ele><time>2026-04-29T10:05:55.859Z</time></trkpt><trkpt lat="40.121741490559" lon="9.3406594921083"><ele>992.0</ele><time>2026-04-29T10:05:56.859Z</time></trkpt><trkpt lat="40.12192150465518" lon="9.34063509208755"><ele>991.3333333333334</ele><time>2026-04-29T10:05:57.859Z</time></trkpt><trkpt lat="40.12211889286862" lon="9.340608835966496"><ele>990.6666666666667</ele><time>2026-04-29T10:05:58.859Z</time></trkpt><trkpt lat="40.12229571022018" lon="9.340572683190333"><ele>990.0</ele><time>2026-04-29T10:05:59.859Z</time></trkpt><trkpt lat="40.12244961874969" lon="9.340566073939272"><ele>988.5</ele><time>2026-04-29T10:06:00.859Z</time></trkpt><trkpt lat="40.12260242345324" lon="9.340546561687187"><ele>987.0</ele><time>2026-04-29T10:06:01.859Z</time></trkpt><trkpt lat="40.12274810729649" lon="9.340544381137809"><ele>985.5</ele><time>2026-04-29T10:06:02.859Z</time></trkpt><trkpt lat="40.122891697630784" lon="9.340525104143023"><ele>984.0</ele><time>2026-04-29T10:06:03.859Z</time></trkpt><trkpt lat="40.123035050262104" lon="9.340502569215579"><ele>984.0</ele><time>2026-04-29T10:06:04.859Z</time></trkpt><trkpt lat="40.12319078329307" lon="9.340476115827117"><ele>984.0</ele><time>2026-04-29T10:06:05.859Z</time></trkpt><trkpt lat="40.12333522350965" lon="9.340422052072881"><ele>984.0</ele><time>2026-04-29T10:06:06.859Z</time></trkpt><trkpt lat="40.123476674699056" lon="9.340383943301187"><ele>984.5</ele><time>2026-04-29T10:06:07.859Z</time></trkpt><trkpt lat="40.123607873483444" lon="9.34034722545925"><ele>985.0</ele><time>2026-04-29T10:06:08.859Z</time></trkpt><trkpt lat="40.12373466932272" lon="9.340311238744661"><ele>985.5</ele><time>2026-04-29T10:06:09.859Z</time></trkpt><trkpt lat="40.12386068744419" lon="9.340281140269372"><ele>986.0</ele><time>2026-04-29T10:06:10.859Z</time></trkpt><trkpt lat="40.124001372264296" lon="9.340236591000643"><ele>985.6666666666667</ele><time>2026-04-29T10:06:11.859Z</time></trkpt><trkpt lat="40.12415238486918" lon="9.340196035732406"><ele>985.3333333333333</ele><time>2026-04-29T10:06:12.859Z</time></trkpt><trkpt lat="40.12430794544439" lon="9.340147569155171"><ele>985.0</ele><time>2026-04-29T10:06:13.859Z</time></trkpt><trkpt lat="40.12446896436738" lon="9.340096074363345"><ele>985.0</ele><time>2026-04-29T10:06:14.859Z</time></trkpt><trkpt lat="40.12462283348221" lon="9.340044623726868"><ele>985.0</ele><time>2026-04-29T10:06:15.859Z</time></trkpt><trkpt lat="40.12477393112451" lon="9.340000613530911"><ele>985.0</ele><time>2026-04-29T10:06:16.859Z</time></trkpt><trkpt lat="40.124923460888226" lon="9.339956762701972"><ele>984.0</ele><time>2026-04-29T10:06:17.859Z</time></trkpt><trkpt lat="40.12505910160688" lon="9.339912912863326"><ele>983.0</ele><time>2026-04-29T10:06:18.859Z</time></trkpt><trkpt lat="40.1251765571213" lon="9.339863600093263"><ele>982.0</ele><time>2026-04-29T10:06:19.859Z</time></trkpt><trkpt lat="40.12526848037047" lon="9.339810320022819"><ele>981.0</ele><time>2026-04-29T10:06:20.859Z</time></trkpt><trkpt lat="40.12535572023321" lon="9.339789655634974"><ele>981.0</ele><time>2026-04-29T10:06:21.859Z</time></trkpt><trkpt lat="40.12541778627927" lon="9.339726325084623"><ele>981.0</ele><time>2026-04-29T10:06:22.859Z</time></trkpt><trkpt lat="40.1254800688704" lon="9.339654408820923"><ele>981.0</ele><time>2026-04-29T10:06:23.859Z</time></trkpt><trkpt lat="40.12552932198753" lon="9.339590458093364"><ele>981.0</ele><time>2026-04-29T10:06:24.859Z</time></trkpt><trkpt lat="40.12557251233821" lon="9.339508830520286"><ele>981.0</ele><time>2026-04-29T10:06:25.859Z</time></trkpt><trkpt lat="40.12565973693206" lon="9.339421126370564"><ele>981.0</ele><time>2026-04-29T10:06:26.859Z</time></trkpt><trkpt lat="40.125711203247825" lon="9.33932529071419"><ele>980.5</ele><time>2026-04-29T10:06:27.859Z</time></trkpt><trkpt lat="40.125802654838736" lon="9.339232520680081"><ele>980.0</ele><time>2026-04-29T10:06:28.859Z</time></trkpt><trkpt lat="40.125664325955796" lon="9.339021321885957"><ele>979.5</ele><time>2026-04-29T10:06:29.859Z</time></trkpt><trkpt lat="40.12570341391992" lon="9.338939821893778"><ele>979.0</ele><time>2026-04-29T10:06:32.859Z</time></trkpt><trkpt lat="40.12680803011258" lon="9.338636463203343"><ele>977.0</ele><time>2026-04-29T10:06:36.859Z</time></trkpt><trkpt lat="40.12695401051868" lon="9.338702878742586"><ele>975.0</ele><time>2026-04-29T10:06:37.859Z</time></trkpt><trkpt lat="40.12710577866593" lon="9.338723582661402"><ele>973.0</ele><time>2026-04-29T10:06:38.859Z</time></trkpt><trkpt lat="40.127267482311254" lon="9.338743986233263"><ele>972.3333333333333</ele><time>2026-04-29T10:06:39.859Z</time></trkpt><trkpt lat="40.12742874523752" lon="9.338764785822066"><ele>971.6666666666667</ele><time>2026-04-29T10:06:40.859Z</time></trkpt><trkpt lat="40.1275771872083" lon="9.338785977195034"><ele>971.0</ele><time>2026-04-29T10:06:41.859Z</time></trkpt><trkpt lat="40.12772068439509" lon="9.338804743562287"><ele>971.0</ele><time>2026-04-29T10:06:42.859Z</time></trkpt><trkpt lat="40.127868745191755" lon="9.338817312364835"><ele>971.0</ele><time>2026-04-29T10:06:43.859Z</time></trkpt><trkpt lat="40.128006943287765" lon="9.338809694355197"><ele>971.0</ele><time>2026-04-29T10:06:44.859Z</time></trkpt><trkpt lat="40.128132207575774" lon="9.33884730708561"><ele>971.0</ele><time>2026-04-29T10:06:45.859Z</time></trkpt><trkpt lat="40.12824537008855" lon="9.338880727478479"><ele>970.8</ele><time>2026-04-29T10:06:46.859Z</time></trkpt><trkpt lat="40.12833378580529" lon="9.338919432849988"><ele>970.5999999999999</ele><time>2026-04-29T10:06:47.859Z</time></trkpt><trkpt lat="40.128411398419686" lon="9.338965986327707"><ele>970.4</ele><time>2026-04-29T10:06:48.859Z</time></trkpt><trkpt lat="40.12846727924284" lon="9.33903071799673"><ele>970.2</ele><time>2026-04-29T10:06:49.859Z</time></trkpt><trkpt lat="40.12851991184778" lon="9.339135633908114"><ele>970.0</ele><time>2026-04-29T10:06:50.859Z</time></trkpt><trkpt lat="40.12856460583537" lon="9.339255094996675"><ele>970.0</ele><time>2026-04-29T10:06:51.859Z</time></trkpt><trkpt lat="40.12860105739342" lon="9.339361536534149"><ele>970.0</ele><time>2026-04-29T10:06:52.859Z</time></trkpt><trkpt lat="40.128637458427264" lon="9.339510122850212"><ele>970.0</ele><time>2026-04-29T10:06:53.859Z</time></trkpt><trkpt lat="40.12866603089892" lon="9.339681595425168"><ele>970.0</ele><time>2026-04-29T10:06:54.859Z</time></trkpt><trkpt lat="40.128722423739084" lon="9.339845983453467"><ele>968.75</ele><time>2026-04-29T10:06:55.859Z</time></trkpt><trkpt lat="40.12876552175709" lon="9.34001929547933"><ele>967.5</ele><time>2026-04-29T10:06:56.859Z</time></trkpt><trkpt lat="40.12882814364796" lon="9.340195546034822"><ele>966.25</ele><time>2026-04-29T10:06:57.859Z</time></trkpt><trkpt lat="40.128898618735306" lon="9.340377501366623"><ele>965.0</ele><time>2026-04-29T10:06:58.859Z</time></trkpt><trkpt lat="40.12896257612276" lon="9.34052313089918"><ele>963.8333333333334</ele><time>2026-04-29T10:06:59.859Z</time></trkpt><trkpt lat="40.12901719418145" lon="9.340642198867865"><ele>962.6666666666667</ele><time>2026-04-29T10:07:00.859Z</time></trkpt><trkpt lat="40.12905394940947" lon="9.340753877210071"><ele>961.5</ele><time>2026-04-29T10:07:01.859Z</time></trkpt><trkpt lat="40.129104875627156" lon="9.340837294820094"><ele>960.3333333333333</ele><time>2026-04-29T10:07:02.859Z</time></trkpt><trkpt lat="40.12916538557169" lon="9.340895888263193"><ele>959.1666666666666</ele><time>2026-04-29T10:07:03.859Z</time></trkpt><trkpt lat="40.12923334317071" lon="9.340927355443766"><ele>958.0</ele><time>2026-04-29T10:07:04.859Z</time></trkpt><trkpt lat="40.129371657929084" lon="9.340953716518653"><ele>957.5999999999999</ele><time>2026-04-29T10:07:06.858Z</time></trkpt><trkpt lat="40.12947370793779" lon="9.340974372491795"><ele>957.1999999999999</ele><time>2026-04-29T10:07:07.858Z</time></trkpt><trkpt lat="40.129587631306705" lon="9.341004843377481"><ele>956.8</ele><time>2026-04-29T10:07:08.858Z</time></trkpt><trkpt lat="40.129691093226675" lon="9.341060433745353"><ele>956.4</ele><time>2026-04-29T10:07:09.858Z</time></trkpt><trkpt lat="40.129803211969794" lon="9.341096869959562"><ele>956.0</ele><time>2026-04-29T10:07:10.858Z</time></trkpt><trkpt lat="40.12992269234907" lon="9.34113226421605"><ele>954.25</ele><time>2026-04-29T10:07:11.858Z</time></trkpt><trkpt lat="40.1300506780066" lon="9.341170339120184"><ele>952.5</ele><time>2026-04-29T10:07:12.858Z</time></trkpt><trkpt lat="40.13017281888747" lon="9.341222955321236"><ele>950.75</ele><time>2026-04-29T10:07:13.858Z</time></trkpt><trkpt lat="40.130299391869954" lon="9.341270557227002"><ele>949.0</ele><time>2026-04-29T10:07:14.858Z</time></trkpt><trkpt lat="40.13042717112812" lon="9.341299280048238"><ele>949.0</ele><time>2026-04-29T10:07:15.858Z</time></trkpt><trkpt lat="40.130562078423274" lon="9.34131154492018"><ele>949.0</ele><time>2026-04-29T10:07:16.858Z</time></trkpt><trkpt lat="40.130700207015146" lon="9.341307432489346"><ele>949.0</ele><time>2026-04-29T10:07:17.858Z</time></trkpt><trkpt lat="40.130844313536805" lon="9.341294984696939"><ele>949.0</ele><time>2026-04-29T10:07:18.857Z</time></trkpt><trkpt lat="40.13098716576005" lon="9.34129792690944"><ele>948.5</ele><time>2026-04-29T10:07:19.858Z</time></trkpt><trkpt lat="40.13110715531149" lon="9.341321989001903"><ele>948.0</ele><time>2026-04-29T10:07:20.858Z</time></trkpt><trkpt lat="40.13120838407205" lon="9.341358436380872"><ele>947.5</ele><time>2026-04-29T10:07:21.858Z</time></trkpt><trkpt lat="40.13130861455505" lon="9.34142396032"><ele>947.0</ele><time>2026-04-29T10:07:22.858Z</time></trkpt><trkpt lat="40.13141176351148" lon="9.341496313779361"><ele>946.75</ele><time>2026-04-29T10:07:23.858Z</time></trkpt><trkpt lat="40.131521766897926" lon="9.341582002605762"><ele>946.5</ele><time>2026-04-29T10:07:24.858Z</time></trkpt><trkpt lat="40.13164557821753" lon="9.341679639182118"><ele>946.25</ele><time>2026-04-29T10:07:25.858Z</time></trkpt><trkpt lat="40.13177271791299" lon="9.341773320170175"><ele>946.0</ele><time>2026-04-29T10:07:26.858Z</time></trkpt><trkpt lat="40.13190038139116" lon="9.341859057067126"><ele>945.0</ele><time>2026-04-29T10:07:27.858Z</time></trkpt><trkpt lat="40.13203275378849" lon="9.341944232696097"><ele>944.0</ele><time>2026-04-29T10:07:28.858Z</time></trkpt><trkpt lat="40.13216614547757" lon="9.342031934610276"><ele>943.0</ele><time>2026-04-29T10:07:29.858Z</time></trkpt><trkpt lat="40.13229622338399" lon="9.342115150992223"><ele>942.0</ele><time>2026-04-29T10:07:30.858Z</time></trkpt><trkpt lat="40.13241796753043" lon="9.342193118612203"><ele>942.0</ele><time>2026-04-29T10:07:31.858Z</time></trkpt><trkpt lat="40.132517797815495" lon="9.342263457988453"><ele>942.0</ele><time>2026-04-29T10:07:32.858Z</time></trkpt><trkpt lat="40.1326014105944" lon="9.342332291588967"><ele>942.0</ele><time>2026-04-29T10:07:33.858Z</time></trkpt><trkpt lat="40.13266892441066" lon="9.342399640171163"><ele>942.0</ele><time>2026-04-29T10:07:34.858Z</time></trkpt><trkpt lat="40.1327200251717" lon="9.342490546942395"><ele>942.0</ele><time>2026-04-29T10:07:35.858Z</time></trkpt><trkpt lat="40.132731596029586" lon="9.342600085800523"><ele>942.0</ele><time>2026-04-29T10:07:36.858Z</time></trkpt><trkpt lat="40.132742344121624" lon="9.342705217640637"><ele>942.0</ele><time>2026-04-29T10:07:37.858Z</time></trkpt><trkpt lat="40.132721547507934" lon="9.342804086799052"><ele>942.0</ele><time>2026-04-29T10:07:38.858Z</time></trkpt><trkpt lat="40.13271078391624" lon="9.342929583346077"><ele>942.0</ele><time>2026-04-29T10:07:39.858Z</time></trkpt><trkpt lat="40.13269217412271" lon="9.343070378588527"><ele>942.0</ele><time>2026-04-29T10:07:40.858Z</time></trkpt><trkpt lat="40.13268203250215" lon="9.343218842205195"><ele>944.0</ele><time>2026-04-29T10:07:41.858Z</time></trkpt><trkpt lat="40.13266981490305" lon="9.343379752856587"><ele>946.0</ele><time>2026-04-29T10:07:42.858Z</time></trkpt><trkpt lat="40.13265439072458" lon="9.343545015890282"><ele>948.0</ele><time>2026-04-29T10:07:43.858Z</time></trkpt><trkpt lat="40.13264061021267" lon="9.34371663047283"><ele>950.0</ele><time>2026-04-29T10:07:44.858Z</time></trkpt><trkpt lat="40.132612991961416" lon="9.343884090050958"><ele>952.0</ele><time>2026-04-29T10:07:45.858Z</time></trkpt><trkpt lat="40.132592805931324" lon="9.344054624913365"><ele>954.0</ele><time>2026-04-29T10:07:46.858Z</time></trkpt><trkpt lat="40.132581653953665" lon="9.344221891253307"><ele>956.0</ele><time>2026-04-29T10:07:47.858Z</time></trkpt><trkpt lat="40.13256844138144" lon="9.344400161067497"><ele>958.0</ele><time>2026-04-29T10:07:48.858Z</time></trkpt><trkpt lat="40.132556522953806" lon="9.344585418879625"><ele>960.5</ele><time>2026-04-29T10:07:49.858Z</time></trkpt><trkpt lat="40.132540356501046" lon="9.34475950670794"><ele>963.0</ele><time>2026-04-29T10:07:50.858Z</time></trkpt><trkpt lat="40.13253089018757" lon="9.344934350303006"><ele>965.5</ele><time>2026-04-29T10:07:51.858Z</time></trkpt><trkpt lat="40.13252499805396" lon="9.345098508092969"><ele>968.0</ele><time>2026-04-29T10:07:52.858Z</time></trkpt><trkpt lat="40.13252921202069" lon="9.345256783697886"><ele>968.0</ele><time>2026-04-29T10:07:53.858Z</time></trkpt><trkpt lat="40.13254680447229" lon="9.34545019966582"><ele>968.0</ele><time>2026-04-29T10:07:54.858Z</time></trkpt><trkpt lat="40.1325767881773" lon="9.345644380051644"><ele>968.0</ele><time>2026-04-29T10:07:55.858Z</time></trkpt><trkpt lat="40.13259672816752" lon="9.345838913676035"><ele>969.5</ele><time>2026-04-29T10:07:56.858Z</time></trkpt><trkpt lat="40.13261183345112" lon="9.346016855336323"><ele>971.0</ele><time>2026-04-29T10:07:57.858Z</time></trkpt><trkpt lat="40.13263438821537" lon="9.346174859400469"><ele>972.5</ele><time>2026-04-29T10:07:58.858Z</time></trkpt><trkpt lat="40.13264981515996" lon="9.346326914927104"><ele>974.0</ele><time>2026-04-29T10:07:59.858Z</time></trkpt><trkpt lat="40.13270270562471" lon="9.346477203680548"><ele>975.25</ele><time>2026-04-29T10:08:00.858Z</time></trkpt><trkpt lat="40.13277305457839" lon="9.346618168182408"><ele>976.5</ele><time>2026-04-29T10:08:01.858Z</time></trkpt><trkpt lat="40.13285852957084" lon="9.34675220703905"><ele>977.75</ele><time>2026-04-29T10:08:02.858Z</time></trkpt><trkpt lat="40.13292079287011" lon="9.346888435360587"><ele>979.0</ele><time>2026-04-29T10:08:03.858Z</time></trkpt><trkpt lat="40.13297150712707" lon="9.347030516896861"><ele>979.0</ele><time>2026-04-29T10:08:04.858Z</time></trkpt><trkpt lat="40.13296793150541" lon="9.34716565201868"><ele>979.0000000000001</ele><time>2026-04-29T10:08:05.858Z</time></trkpt><trkpt lat="40.132967288867626" lon="9.347286392957253"><ele>979.0000000000001</ele><time>2026-04-29T10:08:06.858Z</time></trkpt><trkpt lat="40.132959870929746" lon="9.347429807069199"><ele>979.0</ele><time>2026-04-29T10:08:07.858Z</time></trkpt><trkpt lat="40.13292701134516" lon="9.347573794538263"><ele>979.0</ele><time>2026-04-29T10:08:08.858Z</time></trkpt><trkpt lat="40.13294170589347" lon="9.347744317616229"><ele>980.0</ele><time>2026-04-29T10:08:09.858Z</time></trkpt><trkpt lat="40.13293066249011" lon="9.347911627920132"><ele>981.0</ele><time>2026-04-29T10:08:10.858Z</time></trkpt><trkpt lat="40.132921464969485" lon="9.348083596764075"><ele>982.0</ele><time>2026-04-29T10:08:11.858Z</time></trkpt><trkpt lat="40.13289643820321" lon="9.348263097651154"><ele>983.0</ele><time>2026-04-29T10:08:12.858Z</time></trkpt><trkpt lat="40.132859745162534" lon="9.348435924862361"><ele>983.75</ele><time>2026-04-29T10:08:13.858Z</time></trkpt><trkpt lat="40.1328191588408" lon="9.348614769394072"><ele>984.5</ele><time>2026-04-29T10:08:14.858Z</time></trkpt><trkpt lat="40.13277875939794" lon="9.348784629699846"><ele>985.25</ele><time>2026-04-29T10:08:15.858Z</time></trkpt><trkpt lat="40.13272962797526" lon="9.348921285041586"><ele>986.0</ele><time>2026-04-29T10:08:16.858Z</time></trkpt><trkpt lat="40.132703636968444" lon="9.349054275501986"><ele>986.0000000000001</ele><time>2026-04-29T10:08:17.858Z</time></trkpt><trkpt lat="40.13270193318749" lon="9.349172465564498"><ele>986.0</ele><time>2026-04-29T10:08:18.858Z</time></trkpt><trkpt lat="40.132715062655926" lon="9.349276736449701"><ele>986.0</ele><time>2026-04-29T10:08:19.858Z</time></trkpt><trkpt lat="40.13275710026771" lon="9.349348086696317"><ele>986.0</ele><time>2026-04-29T10:08:20.858Z</time></trkpt><trkpt lat="40.132804685646185" lon="9.349405923885412"><ele>986.0000000000001</ele><time>2026-04-29T10:08:21.858Z</time></trkpt><trkpt lat="40.132868397168245" lon="9.349467538254107"><ele>986.0</ele><time>2026-04-29T10:08:22.858Z</time></trkpt><trkpt lat="40.13295059608646" lon="9.34953057524943"><ele>986.0</ele><time>2026-04-29T10:08:23.858Z</time></trkpt><trkpt lat="40.13305005990349" lon="9.349640569823158"><ele>986.0</ele><time>2026-04-29T10:08:24.858Z</time></trkpt><trkpt lat="40.13315991431438" lon="9.349734330717972"><ele>986.0</ele><time>2026-04-29T10:08:25.858Z</time></trkpt><trkpt lat="40.133244922001474" lon="9.34983548085688"><ele>986.0</ele><time>2026-04-29T10:08:26.858Z</time></trkpt><trkpt lat="40.133328363933195" lon="9.349953398937048"><ele>985.1999999999999</ele><time>2026-04-29T10:08:27.858Z</time></trkpt><trkpt lat="40.133414371203564" lon="9.350058293009194"><ele>984.3999999999999</ele><time>2026-04-29T10:08:28.858Z</time></trkpt><trkpt lat="40.133493980676775" lon="9.350169903967982"><ele>983.6</ele><time>2026-04-29T10:08:29.858Z</time></trkpt><trkpt lat="40.133573284240256" lon="9.35028030210288"><ele>982.8</ele><time>2026-04-29T10:08:30.858Z</time></trkpt><trkpt lat="40.133642986158286" lon="9.350362001616721"><ele>982.0</ele><time>2026-04-29T10:08:31.858Z</time></trkpt><trkpt lat="40.133711150754195" lon="9.350464378372426"><ele>981.6666666666666</ele><time>2026-04-29T10:08:32.858Z</time></trkpt><trkpt lat="40.13377448821876" lon="9.350548058030858"><ele>981.3333333333333</ele><time>2026-04-29T10:08:33.858Z</time></trkpt><trkpt lat="40.13383075797016" lon="9.350618179075607"><ele>981.0</ele><time>2026-04-29T10:08:34.858Z</time></trkpt><trkpt lat="40.133883546933426" lon="9.350683581252811"><ele>980.6666666666667</ele><time>2026-04-29T10:08:35.858Z</time></trkpt><trkpt lat="40.13393110366725" lon="9.350740161216986"><ele>980.3333333333334</ele><time>2026-04-29T10:08:36.858Z</time></trkpt><trkpt lat="40.1340029154573" lon="9.350825626965324"><ele>980.0</ele><time>2026-04-29T10:08:38.858Z</time></trkpt><trkpt lat="40.13405180189174" lon="9.350905158539161"><ele>978.6</ele><time>2026-04-29T10:09:46.856Z</time></trkpt><trkpt lat="40.13414200338906" lon="9.351022221851292"><ele>977.2</ele><time>2026-04-29T10:09:48.856Z</time></trkpt><trkpt lat="40.134207814327496" lon="9.351098174894434"><ele>975.8</ele><time>2026-04-29T10:09:49.856Z</time></trkpt><trkpt lat="40.13427367310022" lon="9.351188813779402"><ele>974.4</ele><time>2026-04-29T10:09:50.856Z</time></trkpt><trkpt lat="40.13433730906746" lon="9.351270749432638"><ele>973.0</ele><time>2026-04-29T10:09:51.856Z</time></trkpt><trkpt lat="40.134400221958835" lon="9.351357865120212"><ele>978.0</ele><time>2026-04-29T10:09:52.856Z</time></trkpt><trkpt lat="40.13446914000108" lon="9.351447882593122"><ele>983.0</ele><time>2026-04-29T10:09:53.856Z</time></trkpt><trkpt lat="40.1345381725149" lon="9.351542986105466"><ele>988.0</ele><time>2026-04-29T10:09:54.856Z</time></trkpt><trkpt lat="40.13460771725425" lon="9.351641963381374"><ele>993.0</ele><time>2026-04-29T10:09:55.856Z</time></trkpt><trkpt lat="40.13468174602367" lon="9.351740148922987"><ele>998.0</ele><time>2026-04-29T10:09:56.856Z</time></trkpt><trkpt lat="40.13475991333175" lon="9.351836383120437"><ele>998.0000000000001</ele><time>2026-04-29T10:09:57.856Z</time></trkpt><trkpt lat="40.134819524074494" lon="9.35191569254311"><ele>998.0</ele><time>2026-04-29T10:09:58.856Z</time></trkpt><trkpt lat="40.134883099139536" lon="9.351981675100715"><ele>998.0</ele><time>2026-04-29T10:09:59.856Z</time></trkpt><trkpt lat="40.13493837154317" lon="9.35206134242162"><ele>998.0</ele><time>2026-04-29T10:10:00.856Z</time></trkpt><trkpt lat="40.13500967138064" lon="9.352131030985714"><ele>998.0000000000001</ele><time>2026-04-29T10:10:01.856Z</time></trkpt><trkpt lat="40.135088637433384" lon="9.352205004901087"><ele>998.0</ele><time>2026-04-29T10:10:02.856Z</time></trkpt><trkpt lat="40.13519252940506" lon="9.352297479320931"><ele>1000.25</ele><time>2026-04-29T10:10:03.856Z</time></trkpt><trkpt lat="40.13531217604502" lon="9.352394091821832"><ele>1002.5</ele><time>2026-04-29T10:10:04.856Z</time></trkpt><trkpt lat="40.135420772234276" lon="9.352471755219078"><ele>1004.75</ele><time>2026-04-29T10:10:05.856Z</time></trkpt><trkpt lat="40.13554105477219" lon="9.352554116516014"><ele>1007.0</ele><time>2026-04-29T10:10:06.856Z</time></trkpt><trkpt lat="40.13564053727622" lon="9.352620163586527"><ele>1007.0</ele><time>2026-04-29T10:10:07.856Z</time></trkpt><trkpt lat="40.135718459107856" lon="9.35267039664029"><ele>1007.0</ele><time>2026-04-29T10:10:08.856Z</time></trkpt><trkpt lat="40.135836136653076" lon="9.35270817415312"><ele>1007.0</ele><time>2026-04-29T10:10:09.856Z</time></trkpt><trkpt lat="40.13598926866354" lon="9.352739676682823"><ele>1007.0</ele><time>2026-04-29T10:10:10.856Z</time></trkpt><trkpt lat="40.13617919459242" lon="9.352288318908123"><ele>1002.75</ele><time>2026-04-29T10:10:12.856Z</time></trkpt><trkpt lat="40.13624518142788" lon="9.35223626327781"><ele>998.5</ele><time>2026-04-29T10:10:13.856Z</time></trkpt><trkpt lat="40.13632447508799" lon="9.352184615655771"><ele>994.25</ele><time>2026-04-29T10:10:14.856Z</time></trkpt><trkpt lat="40.13640836488387" lon="9.352207023867516"><ele>990.0</ele><time>2026-04-29T10:10:15.856Z</time></trkpt><trkpt lat="40.1367555625558" lon="9.35293312428583"><ele>989.0</ele><time>2026-04-29T10:10:16.856Z</time></trkpt><trkpt lat="40.13684565913049" lon="9.352997131184631"><ele>988.0</ele><time>2026-04-29T10:10:17.856Z</time></trkpt><trkpt lat="40.13694323899143" lon="9.353067540204911"><ele>987.0</ele><time>2026-04-29T10:10:18.856Z</time></trkpt><trkpt lat="40.13704311351189" lon="9.353142057793693"><ele>986.0</ele><time>2026-04-29T10:10:19.856Z</time></trkpt><trkpt lat="40.13715346544515" lon="9.35322203698709"><ele>989.5</ele><time>2026-04-29T10:10:20.856Z</time></trkpt><trkpt lat="40.13726736667217" lon="9.353303995294716"><ele>993.0</ele><time>2026-04-29T10:10:21.856Z</time></trkpt><trkpt lat="40.13737990622581" lon="9.35339045927018"><ele>996.5</ele><time>2026-04-29T10:10:22.856Z</time></trkpt><trkpt lat="40.137466715788044" lon="9.353504755933622"><ele>1000.0</ele><time>2026-04-29T10:10:23.856Z</time></trkpt><trkpt lat="40.137559169907085" lon="9.353619472925162"><ele>1000.0</ele><time>2026-04-29T10:10:24.856Z</time></trkpt><trkpt lat="40.13764818104491" lon="9.353743999910654"><ele>1000.0</ele><time>2026-04-29T10:10:25.856Z</time></trkpt><trkpt lat="40.137755030876434" lon="9.353847661604132"><ele>1000.0</ele><time>2026-04-29T10:10:26.856Z</time></trkpt><trkpt lat="40.13786582854214" lon="9.353921125238163"><ele>1000.0</ele><time>2026-04-29T10:10:27.856Z</time></trkpt><trkpt lat="40.137978019949124" lon="9.353998886729352"><ele>1001.5</ele><time>2026-04-29T10:10:28.856Z</time></trkpt><trkpt lat="40.13809478671036" lon="9.354076026188743"><ele>1003.0</ele><time>2026-04-29T10:10:29.856Z</time></trkpt><trkpt lat="40.1382176082332" lon="9.354152778500604"><ele>1004.5</ele><time>2026-04-29T10:10:30.856Z</time></trkpt><trkpt lat="40.138338296280644" lon="9.354234716947852"><ele>1006.0</ele><time>2026-04-29T10:10:31.856Z</time></trkpt><trkpt lat="40.13845700503915" lon="9.35430876330132"><ele>1006.0</ele><time>2026-04-29T10:10:32.856Z</time></trkpt><trkpt lat="40.13857135446574" lon="9.354380015115813"><ele>1006.0</ele><time>2026-04-29T10:10:33.856Z</time></trkpt><trkpt lat="40.138684787332245" lon="9.354443887905632"><ele>1006.0</ele><time>2026-04-29T10:10:34.856Z</time></trkpt><trkpt lat="40.13878466701678" lon="9.354500212580207"><ele>1006.0</ele><time>2026-04-29T10:10:35.856Z</time></trkpt><trkpt lat="40.13886877303283" lon="9.35456003825144"><ele>1005.9999999999999</ele><time>2026-04-29T10:10:36.856Z</time></trkpt><trkpt lat="40.138923903201835" lon="9.354644307329398"><ele>1006.0</ele><time>2026-04-29T10:10:37.856Z</time></trkpt><trkpt lat="40.13896391764809" lon="9.354728867899038"><ele>1006.0</ele><time>2026-04-29T10:10:38.856Z</time></trkpt><trkpt lat="40.13895955687362" lon="9.354835775569658"><ele>1006.0</ele><time>2026-04-29T10:10:39.856Z</time></trkpt><trkpt lat="40.13895963574657" lon="9.354949585599456"><ele>1005.9999999999999</ele><time>2026-04-29T10:10:40.856Z</time></trkpt><trkpt lat="40.13894463114071" lon="9.355082946193194"><ele>1006.0</ele><time>2026-04-29T10:10:41.856Z</time></trkpt><trkpt lat="40.13892761397758" lon="9.355239496209895"><ele>1006.5999999999999</ele><time>2026-04-29T10:10:42.856Z</time></trkpt><trkpt lat="40.13890950738695" lon="9.355397645251191"><ele>1007.1999999999999</ele><time>2026-04-29T10:10:43.856Z</time></trkpt><trkpt lat="40.13889501006431" lon="9.355556330325062"><ele>1007.8000000000001</ele><time>2026-04-29T10:10:44.856Z</time></trkpt><trkpt lat="40.1388876245386" lon="9.355699993988585"><ele>1008.4000000000001</ele><time>2026-04-29T10:10:45.856Z</time></trkpt><trkpt lat="40.13888323824237" lon="9.355814172082372"><ele>1009.0</ele><time>2026-04-29T10:10:46.856Z</time></trkpt><trkpt lat="40.13886192903563" lon="9.355924613382498"><ele>1009.0</ele><time>2026-04-29T10:10:47.856Z</time></trkpt><trkpt lat="40.13882458702315" lon="9.356039461675604"><ele>1009.0000000000001</ele><time>2026-04-29T10:10:48.856Z</time></trkpt><trkpt lat="40.13875970563829" lon="9.356143888275325"><ele>1009.0000000000001</ele><time>2026-04-29T10:10:49.856Z</time></trkpt><trkpt lat="40.138707809069125" lon="9.356270806272153"><ele>1009.0</ele><time>2026-04-29T10:10:50.856Z</time></trkpt><trkpt lat="40.1386424961148" lon="9.356374604435745"><ele>1009.0</ele><time>2026-04-29T10:10:51.856Z</time></trkpt><trkpt lat="40.13857113432648" lon="9.356486088031158"><ele>1007.2</ele><time>2026-04-29T10:10:52.856Z</time></trkpt><trkpt lat="40.13848770766756" lon="9.356582995258671"><ele>1005.4000000000001</ele><time>2026-04-29T10:10:53.856Z</time></trkpt><trkpt lat="40.138430653027356" lon="9.356688618211471"><ele>1003.6</ele><time>2026-04-29T10:10:54.856Z</time></trkpt><trkpt lat="40.13835134289715" lon="9.356777760074555"><ele>1001.8</ele><time>2026-04-29T10:10:55.856Z</time></trkpt><trkpt lat="40.13825022524147" lon="9.356844436409562"><ele>1000.0</ele><time>2026-04-29T10:10:56.856Z</time></trkpt><trkpt lat="40.13816179409939" lon="9.35691760021615"><ele>1000.0</ele><time>2026-04-29T10:10:57.856Z</time></trkpt><trkpt lat="40.138068425771955" lon="9.356991369664918"><ele>1000.0</ele><time>2026-04-29T10:10:58.856Z</time></trkpt><trkpt lat="40.13797635011538" lon="9.357060815715412"><ele>1000.0</ele><time>2026-04-29T10:10:59.856Z</time></trkpt><trkpt lat="40.137879670304606" lon="9.357131949359283"><ele>1000.0</ele><time>2026-04-29T10:11:00.856Z</time></trkpt><trkpt lat="40.13777792920773" lon="9.357217088871442"><ele>1000.0</ele><time>2026-04-29T10:11:01.856Z</time></trkpt><trkpt lat="40.13767541493084" lon="9.357307166529797"><ele>997.2</ele><time>2026-04-29T10:11:02.856Z</time></trkpt><trkpt lat="40.137578662302374" lon="9.357390181569052"><ele>994.4</ele><time>2026-04-29T10:11:03.856Z</time></trkpt><trkpt lat="40.137482832059796" lon="9.357470930023428"><ele>991.5999999999999</ele><time>2026-04-29T10:11:04.856Z</time></trkpt><trkpt lat="40.13738955153737" lon="9.357552842063626"><ele>988.8</ele><time>2026-04-29T10:11:05.856Z</time></trkpt><trkpt lat="40.13730667065664" lon="9.35762639882793"><ele>986.0</ele><time>2026-04-29T10:11:06.856Z</time></trkpt><trkpt lat="40.13724252458181" lon="9.357705160670147"><ele>985.1666666666667</ele><time>2026-04-29T10:11:07.856Z</time></trkpt><trkpt lat="40.137199397898854" lon="9.357786145110847"><ele>984.3333333333334</ele><time>2026-04-29T10:11:08.856Z</time></trkpt><trkpt lat="40.13717706075463" lon="9.357865520624632"><ele>983.5</ele><time>2026-04-29T10:11:09.856Z</time></trkpt><trkpt lat="40.13714750992314" lon="9.357947437989035"><ele>982.6666666666667</ele><time>2026-04-29T10:11:10.856Z</time></trkpt><trkpt lat="40.1371591203365" lon="9.358074559171655"><ele>981.8333333333334</ele><time>2026-04-29T10:11:11.856Z</time></trkpt><trkpt lat="40.13714277381258" lon="9.358215216697817"><ele>981.0</ele><time>2026-04-29T10:11:12.856Z</time></trkpt><trkpt lat="40.13714340485652" lon="9.358364638426902"><ele>978.5</ele><time>2026-04-29T10:11:13.856Z</time></trkpt><trkpt lat="40.13715984181022" lon="9.35851032413603"><ele>976.0</ele><time>2026-04-29T10:11:14.856Z</time></trkpt><trkpt lat="40.137150135292906" lon="9.358659996816295"><ele>973.5</ele><time>2026-04-29T10:11:15.856Z</time></trkpt><trkpt lat="40.13715449835725" lon="9.35880412474191"><ele>971.0</ele><time>2026-04-29T10:11:16.856Z</time></trkpt><trkpt lat="40.137150508076076" lon="9.358955168008652"><ele>969.75</ele><time>2026-04-29T10:11:17.856Z</time></trkpt><trkpt lat="40.13714729997317" lon="9.359107727035465"><ele>968.5</ele><time>2026-04-29T10:11:18.854Z</time></trkpt><trkpt lat="40.13714230074478" lon="9.35925639136481"><ele>967.25</ele><time>2026-04-29T10:11:19.854Z</time></trkpt><trkpt lat="40.137137881103754" lon="9.359401573920863"><ele>966.0</ele><time>2026-04-29T10:11:20.854Z</time></trkpt><trkpt lat="40.13713176161108" lon="9.359544902658193"><ele>966.0</ele><time>2026-04-29T10:11:21.855Z</time></trkpt><trkpt lat="40.13711122442454" lon="9.359684119522875"><ele>965.9999999999999</ele><time>2026-04-29T10:11:22.854Z</time></trkpt><trkpt lat="40.137077955471035" lon="9.359811659319789"><ele>965.9999999999999</ele><time>2026-04-29T10:11:23.854Z</time></trkpt><trkpt lat="40.137034840535236" lon="9.359936267320535"><ele>966.0</ele><time>2026-04-29T10:11:24.855Z</time></trkpt><trkpt lat="40.13698770125162" lon="9.36005951281626"><ele>966.0</ele><time>2026-04-29T10:11:25.855Z</time></trkpt><trkpt lat="40.1369241699149" lon="9.360173827547852"><ele>965.0</ele><time>2026-04-29T10:11:26.855Z</time></trkpt><trkpt lat="40.136878698339416" lon="9.360276067140754"><ele>964.0</ele><time>2026-04-29T10:11:27.855Z</time></trkpt><trkpt lat="40.13683018323194" lon="9.360367137927556"><ele>963.0</ele><time>2026-04-29T10:11:28.855Z</time></trkpt><trkpt lat="40.1367886780324" lon="9.36045275798152"><ele>962.0</ele><time>2026-04-29T10:11:29.855Z</time></trkpt><trkpt lat="40.136753766642734" lon="9.360521722105956"><ele>961.0</ele><time>2026-04-29T10:11:30.855Z</time></trkpt><trkpt lat="40.13672717224096" lon="9.360599839760246"><ele>960.0</ele><time>2026-04-29T10:15:24.854Z</time></trkpt><trkpt lat="40.13681439879751" lon="9.36069955125383"><ele>959.3333333333334</ele><time>2026-04-29T10:15:28.854Z</time></trkpt><trkpt lat="40.13688514290922" lon="9.360713678625004"><ele>958.6666666666667</ele><time>2026-04-29T10:15:29.854Z</time></trkpt><trkpt lat="40.13695712804773" lon="9.360724631263864"><ele>958.0</ele><time>2026-04-29T10:15:30.853Z</time></trkpt><trkpt lat="40.13704062597453" lon="9.360741667790904"><ele>957.3333333333334</ele><time>2026-04-29T10:15:31.853Z</time></trkpt><trkpt lat="40.13712967027721" lon="9.360764410839007"><ele>956.6666666666667</ele><time>2026-04-29T10:15:32.853Z</time></trkpt><trkpt lat="40.137221933379124" lon="9.360791474730323"><ele>956.0</ele><time>2026-04-29T10:15:33.853Z</time></trkpt><trkpt lat="40.13732216571771" lon="9.360818578088425"><ele>956.5</ele><time>2026-04-29T10:15:34.853Z</time></trkpt><trkpt lat="40.137447481096636" lon="9.360848662234854"><ele>957.0</ele><time>2026-04-29T10:15:35.853Z</time></trkpt><trkpt lat="40.13757811112082" lon="9.360885829984154"><ele>957.5</ele><time>2026-04-29T10:15:36.853Z</time></trkpt><trkpt lat="40.137698483439344" lon="9.360922911828501"><ele>958.0</ele><time>2026-04-29T10:15:37.853Z</time></trkpt><trkpt lat="40.1378254826109" lon="9.360950253357018"><ele>958.0</ele><time>2026-04-29T10:15:38.853Z</time></trkpt><trkpt lat="40.13795515562013" lon="9.36098549462066"><ele>958.0</ele><time>2026-04-29T10:15:39.852Z</time></trkpt><trkpt lat="40.13809823503765" lon="9.361023639920623"><ele>958.0</ele><time>2026-04-29T10:15:40.853Z</time></trkpt><trkpt lat="40.13824210412447" lon="9.361061574033167"><ele>958.0</ele><time>2026-04-29T10:15:41.853Z</time></trkpt><trkpt lat="40.13838620073513" lon="9.361103746119259"><ele>958.75</ele><time>2026-04-29T10:15:42.853Z</time></trkpt><trkpt lat="40.13853094853514" lon="9.36113755055742"><ele>959.5</ele><time>2026-04-29T10:15:43.853Z</time></trkpt><trkpt lat="40.13867459139061" lon="9.361176639365182"><ele>960.25</ele><time>2026-04-29T10:15:44.853Z</time></trkpt><trkpt lat="40.13881687343568" lon="9.361216886541552"><ele>961.0</ele><time>2026-04-29T10:15:45.853Z</time></trkpt><trkpt lat="40.1389517379009" lon="9.361253188868528"><ele>960.5</ele><time>2026-04-29T10:15:46.853Z</time></trkpt><trkpt lat="40.139078071889166" lon="9.361275010066032"><ele>960.0</ele><time>2026-04-29T10:15:47.853Z</time></trkpt><trkpt lat="40.13920050398583" lon="9.361278557703008"><ele>959.5</ele><time>2026-04-29T10:15:48.853Z</time></trkpt><trkpt lat="40.13931883197667" lon="9.361259352480182"><ele>959.0</ele><time>2026-04-29T10:15:49.853Z</time></trkpt><trkpt lat="40.13943109280307" lon="9.361218799042174"><ele>959.0</ele><time>2026-04-29T10:15:50.853Z</time></trkpt><trkpt lat="40.1395316637332" lon="9.361149243908782"><ele>959.0</ele><time>2026-04-29T10:15:51.853Z</time></trkpt><trkpt lat="40.13962584408741" lon="9.361061804280121"><ele>959.0</ele><time>2026-04-29T10:15:52.853Z</time></trkpt><trkpt lat="40.13973221037761" lon="9.360969561218436"><ele>959.0</ele><time>2026-04-29T10:15:53.853Z</time></trkpt><trkpt lat="40.139820378370274" lon="9.360821334040972"><ele>956.3333333333334</ele><time>2026-04-29T10:15:54.853Z</time></trkpt><trkpt lat="40.13992624319199" lon="9.360680574407464"><ele>953.6666666666667</ele><time>2026-04-29T10:15:55.853Z</time></trkpt><trkpt lat="40.14003609721125" lon="9.360536843082336"><ele>951.0</ele><time>2026-04-29T10:15:56.853Z</time></trkpt><trkpt lat="40.14015182728358" lon="9.360391212741108"><ele>951.0</ele><time>2026-04-29T10:15:57.853Z</time></trkpt><trkpt lat="40.14026732936799" lon="9.360231092759939"><ele>951.0</ele><time>2026-04-29T10:15:58.853Z</time></trkpt><trkpt lat="40.140390009686186" lon="9.360067837934096"><ele>951.0</ele><time>2026-04-29T10:15:59.853Z</time></trkpt><trkpt lat="40.14050753929158" lon="9.359903558233476"><ele>951.0</ele><time>2026-04-29T10:16:00.853Z</time></trkpt><trkpt lat="40.140624627015505" lon="9.35974262897076"><ele>951.0</ele><time>2026-04-29T10:16:01.853Z</time></trkpt><trkpt lat="40.14074844516991" lon="9.359571990220795"><ele>951.0</ele><time>2026-04-29T10:16:02.853Z</time></trkpt><trkpt lat="40.14086769908764" lon="9.359410699011965"><ele>949.3333333333333</ele><time>2026-04-29T10:16:03.853Z</time></trkpt><trkpt lat="40.14098927132367" lon="9.359260088914837"><ele>947.6666666666666</ele><time>2026-04-29T10:16:04.853Z</time></trkpt><trkpt lat="40.14110204392048" lon="9.359124419024171"><ele>946.0</ele><time>2026-04-29T10:16:05.853Z</time></trkpt><trkpt lat="40.14120600983171" lon="9.358993421652587"><ele>946.0</ele><time>2026-04-29T10:16:06.853Z</time></trkpt><trkpt lat="40.141299294661124" lon="9.35886362159654"><ele>946.0</ele><time>2026-04-29T10:16:07.853Z</time></trkpt><trkpt lat="40.14137067170584" lon="9.358729087554767"><ele>946.0</ele><time>2026-04-29T10:16:08.853Z</time></trkpt><trkpt lat="40.14142783186541" lon="9.358571218108446"><ele>946.0</ele><time>2026-04-29T10:16:09.853Z</time></trkpt><trkpt lat="40.14147406938358" lon="9.35840512764096"><ele>946.0</ele><time>2026-04-29T10:16:10.853Z</time></trkpt><trkpt lat="40.1415109039515" lon="9.358224100325316"><ele>946.0</ele><time>2026-04-29T10:16:11.853Z</time></trkpt><trkpt lat="40.14154088963315" lon="9.358026142726713"><ele>946.0</ele><time>2026-04-29T10:16:12.853Z</time></trkpt><trkpt lat="40.141565884013886" lon="9.35782254873308"><ele>946.6666666666666</ele><time>2026-04-29T10:16:13.853Z</time></trkpt><trkpt lat="40.141589637692405" lon="9.357617229931067"><ele>947.3333333333333</ele><time>2026-04-29T10:16:14.853Z</time></trkpt><trkpt lat="40.14161476797348" lon="9.357407529223506"><ele>948.0</ele><time>2026-04-29T10:16:15.853Z</time></trkpt><trkpt lat="40.14164154815843" lon="9.357200505213822"><ele>948.0</ele><time>2026-04-29T10:16:16.853Z</time></trkpt><trkpt lat="40.141665387719655" lon="9.35699878618775"><ele>948.0</ele><time>2026-04-29T10:16:17.853Z</time></trkpt><trkpt lat="40.14168821603768" lon="9.35679904722098"><ele>948.0</ele><time>2026-04-29T10:16:18.853Z</time></trkpt><trkpt lat="40.141708056620125" lon="9.356595253888825"><ele>948.0</ele><time>2026-04-29T10:16:19.853Z</time></trkpt><trkpt lat="40.14173092653883" lon="9.356399849779722"><ele>948.0</ele><time>2026-04-29T10:16:20.853Z</time></trkpt><trkpt lat="40.14175031979423" lon="9.356214000638323"><ele>948.0</ele><time>2026-04-29T10:16:21.853Z</time></trkpt><trkpt lat="40.14177482824567" lon="9.356033781500537"><ele>948.0</ele><time>2026-04-29T10:16:22.853Z</time></trkpt><trkpt lat="40.14180457141249" lon="9.355859615083506"><ele>947.5</ele><time>2026-04-29T10:16:23.853Z</time></trkpt><trkpt lat="40.14184823134506" lon="9.35569239256255"><ele>947.0</ele><time>2026-04-29T10:16:24.853Z</time></trkpt><trkpt lat="40.14190142153029" lon="9.355540336671336"><ele>946.5</ele><time>2026-04-29T10:16:25.853Z</time></trkpt><trkpt lat="40.141964671576304" lon="9.355397545905902"><ele>946.0</ele><time>2026-04-29T10:16:26.853Z</time></trkpt><trkpt lat="40.142039583264925" lon="9.355262614458152"><ele>946.0</ele><time>2026-04-29T10:16:27.853Z</time></trkpt><trkpt lat="40.14212451316257" lon="9.355131992287445"><ele>946.0</ele><time>2026-04-29T10:16:28.853Z</time></trkpt><trkpt lat="40.14221410215009" lon="9.355002972821783"><ele>946.0</ele><time>2026-04-29T10:16:29.853Z</time></trkpt><trkpt lat="40.14230677906123" lon="9.35487142620487"><ele>946.0</ele><time>2026-04-29T10:16:30.853Z</time></trkpt><trkpt lat="40.14239751020781" lon="9.354734812228443"><ele>946.5</ele><time>2026-04-29T10:16:31.853Z</time></trkpt><trkpt lat="40.142488075558795" lon="9.354593249420015"><ele>947.0</ele><time>2026-04-29T10:16:32.853Z</time></trkpt><trkpt lat="40.1425702680781" lon="9.354444749825348"><ele>947.5</ele><time>2026-04-29T10:16:33.853Z</time></trkpt><trkpt lat="40.14265262326606" lon="9.3542877931749"><ele>948.0</ele><time>2026-04-29T10:16:34.853Z</time></trkpt><trkpt lat="40.14272466237661" lon="9.35413045846796"><ele>948.0</ele><time>2026-04-29T10:16:35.853Z</time></trkpt><trkpt lat="40.14278208034802" lon="9.353958783650345"><ele>948.0</ele><time>2026-04-29T10:16:36.853Z</time></trkpt><trkpt lat="40.14281320580922" lon="9.353777469431396"><ele>948.0</ele><time>2026-04-29T10:16:37.853Z</time></trkpt><trkpt lat="40.14282829529798" lon="9.353597721355104"><ele>948.0</ele><time>2026-04-29T10:16:38.853Z</time></trkpt><trkpt lat="40.14282808887978" lon="9.35340495448256"><ele>947.6666666666667</ele><time>2026-04-29T10:16:39.853Z</time></trkpt><trkpt lat="40.142837333813674" lon="9.353197912936578"><ele>947.3333333333334</ele><time>2026-04-29T10:16:40.853Z</time></trkpt><trkpt lat="40.14284606920104" lon="9.35299812741789"><ele>947.0</ele><time>2026-04-29T10:16:41.853Z</time></trkpt><trkpt lat="40.14283570839943" lon="9.352812523264118"><ele>948.25</ele><time>2026-04-29T10:16:42.853Z</time></trkpt><trkpt lat="40.14280822930264" lon="9.352633994864089"><ele>949.5</ele><time>2026-04-29T10:16:43.853Z</time></trkpt><trkpt lat="40.14277017787268" lon="9.35245136064247"><ele>950.75</ele><time>2026-04-29T10:16:44.853Z</time></trkpt><trkpt lat="40.142735066387786" lon="9.352282353740984"><ele>952.0</ele><time>2026-04-29T10:16:45.853Z</time></trkpt><trkpt lat="40.142708268417145" lon="9.352134987921971"><ele>953.0</ele><time>2026-04-29T10:16:46.853Z</time></trkpt><trkpt lat="40.142705093347914" lon="9.351987739920899"><ele>954.0</ele><time>2026-04-29T10:16:47.853Z</time></trkpt><trkpt lat="40.14273067363445" lon="9.351873835775434"><ele>955.0</ele><time>2026-04-29T10:16:48.853Z</time></trkpt><trkpt lat="40.14279340482494" lon="9.35177628147769"><ele>956.0</ele><time>2026-04-29T10:16:49.853Z</time></trkpt><trkpt lat="40.1428533129355" lon="9.351676686728627"><ele>957.0</ele><time>2026-04-29T10:16:50.853Z</time></trkpt><trkpt lat="40.14296979993252" lon="9.351600221677247"><ele>957.0</ele><time>2026-04-29T10:16:51.853Z</time></trkpt><trkpt lat="40.14309102122556" lon="9.351522880464811"><ele>957.0</ele><time>2026-04-29T10:16:52.853Z</time></trkpt><trkpt lat="40.14323819129603" lon="9.35144478815648"><ele>957.0</ele><time>2026-04-29T10:16:53.853Z</time></trkpt><trkpt lat="40.14340166130547" lon="9.35135527602155"><ele>963.0</ele><time>2026-04-29T10:16:54.853Z</time></trkpt><trkpt lat="40.14358424584349" lon="9.35125470762391"><ele>969.0</ele><time>2026-04-29T10:16:55.853Z</time></trkpt><trkpt lat="40.14376652271843" lon="9.35116106918796"><ele>975.0</ele><time>2026-04-29T10:16:56.853Z</time></trkpt><trkpt lat="40.14395278439598" lon="9.351064850486134"><ele>975.0</ele><time>2026-04-29T10:16:57.853Z</time></trkpt><trkpt lat="40.143800530766676" lon="9.3511435013551"><ele>975.0</ele><time>2026-04-29T10:16:58.853Z</time></trkpt><trkpt lat="40.1439419101717" lon="9.351070990525505"><ele>975.0</ele><time>2026-04-29T10:16:59.853Z</time></trkpt><trkpt lat="40.14409047110533" lon="9.351006284510484"><ele>976.0</ele><time>2026-04-29T10:17:00.853Z</time></trkpt><trkpt lat="40.144244127333685" lon="9.350952639605323"><ele>977.0</ele><time>2026-04-29T10:17:01.853Z</time></trkpt><trkpt lat="40.144401404774605" lon="9.350913332057148"><ele>978.0</ele><time>2026-04-29T10:17:02.853Z</time></trkpt><trkpt lat="40.14456449927617" lon="9.350883171987956"><ele>978.0</ele><time>2026-04-29T10:17:03.853Z</time></trkpt><trkpt lat="40.14473316466616" lon="9.350858359081712"><ele>978.0</ele><time>2026-04-29T10:17:04.853Z</time></trkpt><trkpt lat="40.1449064125685" lon="9.350850060379893"><ele>978.0</ele><time>2026-04-29T10:17:05.853Z</time></trkpt><trkpt lat="40.14508307895484" lon="9.35084892267493"><ele>980.0</ele><time>2026-04-29T10:17:06.853Z</time></trkpt><trkpt lat="40.145261555292734" lon="9.350853512377642"><ele>982.0</ele><time>2026-04-29T10:17:07.853Z</time></trkpt><trkpt lat="40.14543300574994" lon="9.350861354775429"><ele>984.0</ele><time>2026-04-29T10:17:08.853Z</time></trkpt><trkpt lat="40.14558393243355" lon="9.35086035903177"><ele>985.6</ele><time>2026-04-29T10:17:09.853Z</time></trkpt><trkpt lat="40.1457221873881" lon="9.350843363695125"><ele>987.2</ele><time>2026-04-29T10:17:10.853Z</time></trkpt><trkpt lat="40.14582697287969" lon="9.350774918829728"><ele>988.8000000000001</ele><time>2026-04-29T10:17:11.853Z</time></trkpt><trkpt lat="40.14590689734596" lon="9.350743549650945"><ele>990.4000000000001</ele><time>2026-04-29T10:17:12.853Z</time></trkpt><trkpt lat="40.14594590672023" lon="9.350635680637753"><ele>992.0</ele><time>2026-04-29T10:17:13.853Z</time></trkpt><trkpt lat="40.14597536025534" lon="9.350532651728612"><ele>992.0</ele><time>2026-04-29T10:17:14.853Z</time></trkpt><trkpt lat="40.145989909471545" lon="9.350396594547101"><ele>992.0</ele><time>2026-04-29T10:17:15.853Z</time></trkpt><trkpt lat="40.146001483982324" lon="9.350240789997715"><ele>992.0</ele><time>2026-04-29T10:17:16.853Z</time></trkpt><trkpt lat="40.14602202811665" lon="9.350069354038423"><ele>992.0</ele><time>2026-04-29T10:17:17.853Z</time></trkpt><trkpt lat="40.14604628280737" lon="9.349873253761839"><ele>992.3333333333334</ele><time>2026-04-29T10:17:18.853Z</time></trkpt><trkpt lat="40.146073022547206" lon="9.349665704169995"><ele>992.6666666666667</ele><time>2026-04-29T10:17:19.853Z</time></trkpt><trkpt lat="40.14609974541985" lon="9.349451260883995"><ele>993.0</ele><time>2026-04-29T10:17:20.853Z</time></trkpt><trkpt lat="40.14612531610905" lon="9.349234750584435"><ele>993.0</ele><time>2026-04-29T10:17:21.853Z</time></trkpt><trkpt lat="40.14618119877778" lon="9.348991323454698"><ele>993.0</ele><time>2026-04-29T10:17:22.853Z</time></trkpt><trkpt lat="40.146235409360564" lon="9.348787998635853"><ele>993.0</ele><time>2026-04-29T10:17:23.853Z</time></trkpt><trkpt lat="40.146299109258834" lon="9.348580739456171"><ele>992.75</ele><time>2026-04-29T10:17:24.853Z</time></trkpt><trkpt lat="40.146370839026204" lon="9.34839042258198"><ele>992.5</ele><time>2026-04-29T10:17:25.853Z</time></trkpt><trkpt lat="40.146455387657404" lon="9.3482234331616"><ele>992.25</ele><time>2026-04-29T10:17:26.853Z</time></trkpt><trkpt lat="40.14653732744649" lon="9.348101236462572"><ele>992.0</ele><time>2026-04-29T10:17:27.853Z</time></trkpt><trkpt lat="40.14662551106854" lon="9.348047006093612"><ele>988.5</ele><time>2026-04-29T10:17:28.853Z</time></trkpt><trkpt lat="40.14670128016681" lon="9.347975783475961"><ele>985.0</ele><time>2026-04-29T10:17:29.853Z</time></trkpt><trkpt lat="40.146818699310096" lon="9.347931577430925"><ele>981.5</ele><time>2026-04-29T10:17:30.853Z</time></trkpt><trkpt lat="40.146948234909445" lon="9.347901105584391"><ele>978.0</ele><time>2026-04-29T10:17:31.853Z</time></trkpt><trkpt lat="40.14709257218248" lon="9.347873297614695"><ele>978.0</ele><time>2026-04-29T10:17:32.853Z</time></trkpt><trkpt lat="40.14723102953989" lon="9.347857438555945"><ele>978.0</ele><time>2026-04-29T10:17:33.853Z</time></trkpt><trkpt lat="40.147367523048956" lon="9.3478639652117"><ele>978.0</ele><time>2026-04-29T10:17:34.853Z</time></trkpt><trkpt lat="40.14749888026031" lon="9.347891272402268"><ele>978.0</ele><time>2026-04-29T10:17:35.853Z</time></trkpt><trkpt lat="40.14763145596748" lon="9.347936452612577"><ele>978.25</ele><time>2026-04-29T10:17:36.852Z</time></trkpt><trkpt lat="40.14777065082682" lon="9.34800169823199"><ele>978.5</ele><time>2026-04-29T10:17:37.851Z</time></trkpt><trkpt lat="40.14790949553113" lon="9.348076828060917"><ele>978.75</ele><time>2026-04-29T10:17:38.851Z</time></trkpt><trkpt lat="40.14804695204192" lon="9.348140088902838"><ele>979.0</ele><time>2026-04-29T10:17:39.852Z</time></trkpt><trkpt lat="40.14819565511506" lon="9.348195439932653"><ele>984.0</ele><time>2026-04-29T10:17:40.851Z</time></trkpt><trkpt lat="40.14836141729511" lon="9.348247748057053"><ele>989.0</ele><time>2026-04-29T10:17:41.851Z</time></trkpt><trkpt lat="40.14851559437506" lon="9.3482813243115"><ele>994.0</ele><time>2026-04-29T10:17:42.851Z</time></trkpt><trkpt lat="40.14867316032907" lon="9.348321839660414"><ele>994.0</ele><time>2026-04-29T10:17:43.851Z</time></trkpt><trkpt lat="40.14882555774425" lon="9.348346346844073"><ele>994.0</ele><time>2026-04-29T10:17:44.851Z</time></trkpt><trkpt lat="40.1489852801392" lon="9.348361909994821"><ele>994.0</ele><time>2026-04-29T10:17:45.851Z</time></trkpt><trkpt lat="40.149152698265446" lon="9.348381859862807"><ele>991.3333333333333</ele><time>2026-04-29T10:17:46.852Z</time></trkpt><trkpt lat="40.14930729062788" lon="9.348404411661862"><ele>988.6666666666667</ele><time>2026-04-29T10:17:47.852Z</time></trkpt><trkpt lat="40.149461875026276" lon="9.348418170274172"><ele>986.0</ele><time>2026-04-29T10:17:48.851Z</time></trkpt><trkpt lat="40.14962534925671" lon="9.34842315561951"><ele>986.0</ele><time>2026-04-29T10:17:49.851Z</time></trkpt><trkpt lat="40.149782408974886" lon="9.34842747148243"><ele>986.0</ele><time>2026-04-29T10:17:50.851Z</time></trkpt><trkpt lat="40.14994396618571" lon="9.34842731569228"><ele>986.0</ele><time>2026-04-29T10:17:51.851Z</time></trkpt><trkpt lat="40.15007552248096" lon="9.34842332936988"><ele>985.75</ele><time>2026-04-29T10:17:52.851Z</time></trkpt><trkpt lat="40.15019910161937" lon="9.348434326250274"><ele>985.5</ele><time>2026-04-29T10:17:53.851Z</time></trkpt><trkpt lat="40.15030472813608" lon="9.348468594163148"><ele>985.25</ele><time>2026-04-29T10:17:54.851Z</time></trkpt><trkpt lat="40.150409889336295" lon="9.348533969122618"><ele>985.0</ele><time>2026-04-29T10:17:55.851Z</time></trkpt><trkpt lat="40.150507653857304" lon="9.348624291421862"><ele>985.0</ele><time>2026-04-29T10:17:56.851Z</time></trkpt><trkpt lat="40.15060550966632" lon="9.34874578144018"><ele>985.0</ele><time>2026-04-29T10:17:57.851Z</time></trkpt><trkpt lat="40.15067000359015" lon="9.348888018425624"><ele>985.0</ele><time>2026-04-29T10:17:58.851Z</time></trkpt><trkpt lat="40.150755242610025" lon="9.34901852844497"><ele>985.0</ele><time>2026-04-29T10:17:59.851Z</time></trkpt><trkpt lat="40.15084947892776" lon="9.349121700591747"><ele>986.0</ele><time>2026-04-29T10:18:00.851Z</time></trkpt><trkpt lat="40.1509647634831" lon="9.349196097105104"><ele>987.0</ele><time>2026-04-29T10:18:01.851Z</time></trkpt><trkpt lat="40.151088975242835" lon="9.34925260688544"><ele>988.0</ele><time>2026-04-29T10:18:02.851Z</time></trkpt><trkpt lat="40.15122860329349" lon="9.349308695860033"><ele>989.0</ele><time>2026-04-29T10:18:03.851Z</time></trkpt><trkpt lat="40.15137324505542" lon="9.34936710785625"><ele>989.0</ele><time>2026-04-29T10:18:04.851Z</time></trkpt><trkpt lat="40.151518496791695" lon="9.349425605557874"><ele>989.0</ele><time>2026-04-29T10:18:05.851Z</time></trkpt><trkpt lat="40.15166033016342" lon="9.349492461892906"><ele>989.0</ele><time>2026-04-29T10:18:06.851Z</time></trkpt><trkpt lat="40.15180934919838" lon="9.349566094515607"><ele>991.6666666666667</ele><time>2026-04-29T10:18:07.851Z</time></trkpt><trkpt lat="40.15195358415872" lon="9.3496474945551"><ele>994.3333333333333</ele><time>2026-04-29T10:18:08.851Z</time></trkpt><trkpt lat="40.15208871106972" lon="9.349749116090099"><ele>997.0</ele><time>2026-04-29T10:18:09.851Z</time></trkpt><trkpt lat="40.152233331824874" lon="9.34986188383038"><ele>990.6666666666666</ele><time>2026-04-29T10:18:10.851Z</time></trkpt><trkpt lat="40.15239071663224" lon="9.349968720996525"><ele>984.3333333333333</ele><time>2026-04-29T10:18:11.851Z</time></trkpt><trkpt lat="40.15254700121305" lon="9.350089902196284"><ele>978.0</ele><time>2026-04-29T10:18:12.852Z</time></trkpt><trkpt lat="40.15270031224934" lon="9.350211861837794"><ele>978.0</ele><time>2026-04-29T10:18:13.854Z</time></trkpt><trkpt lat="40.15286017476589" lon="9.350309637966685"><ele>978.0</ele><time>2026-04-29T10:18:14.856Z</time></trkpt><trkpt lat="40.15301798989847" lon="9.35041265167134"><ele>978.0</ele><time>2026-04-29T10:18:15.857Z</time></trkpt><trkpt lat="40.15317937612195" lon="9.350522188607263"><ele>980.0</ele><time>2026-04-29T10:18:16.859Z</time></trkpt><trkpt lat="40.15332291967873" lon="9.350619613976413"><ele>982.0</ele><time>2026-04-29T10:18:17.86Z</time></trkpt><trkpt lat="40.15348241279043" lon="9.350700767188634"><ele>984.0</ele><time>2026-04-29T10:18:18.862Z</time></trkpt><trkpt lat="40.15364460807594" lon="9.350781635791893"><ele>984.0</ele><time>2026-04-29T10:18:19.863Z</time></trkpt><trkpt lat="40.15380963448866" lon="9.350864217606988"><ele>984.0</ele><time>2026-04-29T10:18:20.864Z</time></trkpt><trkpt lat="40.153965421907444" lon="9.35095951285761"><ele>984.0</ele><time>2026-04-29T10:18:21.865Z</time></trkpt><trkpt lat="40.15411575834087" lon="9.351044552971056"><ele>982.4000000000001</ele><time>2026-04-29T10:18:22.866Z</time></trkpt><trkpt lat="40.154239765241016" lon="9.351091904179114"><ele>980.8000000000001</ele><time>2026-04-29T10:18:23.867Z</time></trkpt><trkpt lat="40.1543522849863" lon="9.351142109439738"><ele>979.1999999999999</ele><time>2026-04-29T10:18:24.868Z</time></trkpt><trkpt lat="40.15445489985427" lon="9.351148072014604"><ele>977.5999999999999</ele><time>2026-04-29T10:18:25.869Z</time></trkpt><trkpt lat="40.15453614202289" lon="9.35115103307092"><ele>976.0</ele><time>2026-04-29T10:18:26.87Z</time></trkpt><trkpt lat="40.15462557479275" lon="9.351066769575032"><ele>976.0</ele><time>2026-04-29T10:18:27.871Z</time></trkpt><trkpt lat="40.15470087427452" lon="9.350973965352496"><ele>976.0</ele><time>2026-04-29T10:18:28.871Z</time></trkpt><trkpt lat="40.1547700959807" lon="9.35085301473043"><ele>976.0</ele><time>2026-04-29T10:18:29.872Z</time></trkpt><trkpt lat="40.15483011130357" lon="9.350711254941833"><ele>976.0</ele><time>2026-04-29T10:18:30.873Z</time></trkpt><trkpt lat="40.154894067305136" lon="9.350573156320246"><ele>974.1999999999999</ele><time>2026-04-29T10:18:31.873Z</time></trkpt><trkpt lat="40.154959000272" lon="9.350447170457295"><ele>972.3999999999999</ele><time>2026-04-29T10:18:32.874Z</time></trkpt><trkpt lat="40.15503748131528" lon="9.350346621049827"><ele>970.6</ele><time>2026-04-29T10:18:33.874Z</time></trkpt><trkpt lat="40.15513519041827" lon="9.350269903672721"><ele>968.8</ele><time>2026-04-29T10:18:34.875Z</time></trkpt><trkpt lat="40.15523518836259" lon="9.35022215087136"><ele>967.0</ele><time>2026-04-29T10:18:35.875Z</time></trkpt><trkpt lat="40.1553544375032" lon="9.350180151880853"><ele>967.0</ele><time>2026-04-29T10:18:36.876Z</time></trkpt><trkpt lat="40.155488025156345" lon="9.350150962387776"><ele>967.0</ele><time>2026-04-29T10:18:37.876Z</time></trkpt><trkpt lat="40.15562724548097" lon="9.350112535749732"><ele>967.0</ele><time>2026-04-29T10:18:38.876Z</time></trkpt><trkpt lat="40.15577685501172" lon="9.350074619328364"><ele>967.0</ele><time>2026-04-29T10:18:39.877Z</time></trkpt><trkpt lat="40.1559284916228" lon="9.35002489842782"><ele>967.0</ele><time>2026-04-29T10:18:40.877Z</time></trkpt><trkpt lat="40.156093102990475" lon="9.349980674442795"><ele>967.0</ele><time>2026-04-29T10:18:41.877Z</time></trkpt><trkpt lat="40.15626249692127" lon="9.349931676025689"><ele>967.0</ele><time>2026-04-29T10:18:42.878Z</time></trkpt><trkpt lat="40.15643509617757" lon="9.349881844987252"><ele>965.6666666666666</ele><time>2026-04-29T10:18:43.878Z</time></trkpt><trkpt lat="40.15660790266743" lon="9.349828506425805"><ele>964.3333333333333</ele><time>2026-04-29T10:18:44.878Z</time></trkpt><trkpt lat="40.15677942891075" lon="9.349779052848447"><ele>963.0</ele><time>2026-04-29T10:18:45.879Z</time></trkpt><trkpt lat="40.156949537627625" lon="9.349727657718413"><ele>961.6666666666667</ele><time>2026-04-29T10:18:46.879Z</time></trkpt><trkpt lat="40.15711702128796" lon="9.349675359857361"><ele>960.3333333333334</ele><time>2026-04-29T10:18:47.879Z</time></trkpt><trkpt lat="40.15729060490553" lon="9.349620244937814"><ele>959.0</ele><time>2026-04-29T10:18:48.879Z</time></trkpt><trkpt lat="40.15745469035695" lon="9.34951737330592"><ele>958.3333333333334</ele><time>2026-04-29T10:18:49.879Z</time></trkpt><trkpt lat="40.157635287005874" lon="9.349436793900415"><ele>957.6666666666667</ele><time>2026-04-29T10:18:50.88Z</time></trkpt><trkpt lat="40.157812019035646" lon="9.34933122854536"><ele>957.0</ele><time>2026-04-29T10:18:51.88Z</time></trkpt><trkpt lat="40.157995337207275" lon="9.349221128737414"><ele>957.0</ele><time>2026-04-29T10:18:52.88Z</time></trkpt><trkpt lat="40.15818119202298" lon="9.349107775907237"><ele>957.0</ele><time>2026-04-29T10:18:53.88Z</time></trkpt><trkpt lat="40.15836759119772" lon="9.348991957442486"><ele>957.0</ele><time>2026-04-29T10:18:54.88Z</time></trkpt><trkpt lat="40.15855553920113" lon="9.348874304411575"><ele>954.0</ele><time>2026-04-29T10:18:55.88Z</time></trkpt><trkpt lat="40.158740334697384" lon="9.348756227781395"><ele>951.0</ele><time>2026-04-29T10:18:56.88Z</time></trkpt><trkpt lat="40.15892629695402" lon="9.34861569004393"><ele>948.0</ele><time>2026-04-29T10:18:57.881Z</time></trkpt><trkpt lat="40.15911206868671" lon="9.348497398294175"><ele>946.6666666666667</ele><time>2026-04-29T10:18:58.881Z</time></trkpt><trkpt lat="40.15929380291858" lon="9.348379272450243"><ele>945.3333333333334</ele><time>2026-04-29T10:18:59.881Z</time></trkpt><trkpt lat="40.15945654926284" lon="9.348279199955718"><ele>944.0</ele><time>2026-04-29T10:19:00.881Z</time></trkpt><trkpt lat="40.15960983151418" lon="9.348182060933683"><ele>944.0</ele><time>2026-04-29T10:19:01.881Z</time></trkpt><trkpt lat="40.159755972959836" lon="9.348105395380006"><ele>944.0</ele><time>2026-04-29T10:19:02.881Z</time></trkpt><trkpt lat="40.15990189010674" lon="9.348087866449143"><ele>944.0</ele><time>2026-04-29T10:19:03.881Z</time></trkpt><trkpt lat="40.16003788928742" lon="9.348075457816476"><ele>944.0</ele><time>2026-04-29T10:19:04.881Z</time></trkpt><trkpt lat="40.16017719212289" lon="9.348083072613125"><ele>945.0</ele><time>2026-04-29T10:19:05.881Z</time></trkpt><trkpt lat="40.16034025803429" lon="9.348092648661792"><ele>946.0</ele><time>2026-04-29T10:19:06.881Z</time></trkpt><trkpt lat="40.160513335057615" lon="9.348143052312617"><ele>947.0</ele><time>2026-04-29T10:19:07.881Z</time></trkpt><trkpt lat="40.16069454539116" lon="9.348192247667741"><ele>947.3333333333334</ele><time>2026-04-29T10:19:08.881Z</time></trkpt><trkpt lat="40.16088476274208" lon="9.348237149297034"><ele>947.6666666666667</ele><time>2026-04-29T10:19:09.882Z</time></trkpt><trkpt lat="40.16108623937968" lon="9.34828041217951"><ele>948.0</ele><time>2026-04-29T10:19:10.882Z</time></trkpt><trkpt lat="40.16129208370401" lon="9.348319957982559"><ele>948.0</ele><time>2026-04-29T10:19:11.882Z</time></trkpt><trkpt lat="40.161497248663565" lon="9.348361767668207"><ele>948.0</ele><time>2026-04-29T10:19:12.882Z</time></trkpt><trkpt lat="40.161710555199136" lon="9.348403734784947"><ele>948.0</ele><time>2026-04-29T10:19:13.882Z</time></trkpt><trkpt lat="40.16191621441962" lon="9.348442405705072"><ele>948.0</ele><time>2026-04-29T10:19:14.882Z</time></trkpt><trkpt lat="40.16211822502673" lon="9.34847817534468"><ele>948.0</ele><time>2026-04-29T10:19:15.882Z</time></trkpt><trkpt lat="40.1623093518391" lon="9.34851302067108"><ele>948.0</ele><time>2026-04-29T10:19:16.882Z</time></trkpt><trkpt lat="40.16248514902107" lon="9.348554740190162"><ele>949.0</ele><time>2026-04-29T10:19:17.882Z</time></trkpt><trkpt lat="40.162634860050744" lon="9.34861101567094"><ele>950.0</ele><time>2026-04-29T10:19:18.882Z</time></trkpt><trkpt lat="40.1627733942652" lon="9.348697946881458"><ele>951.0</ele><time>2026-04-29T10:19:19.882Z</time></trkpt><trkpt lat="40.16291137562777" lon="9.348777378884805"><ele>952.6666666666667</ele><time>2026-04-29T10:19:20.882Z</time></trkpt><trkpt lat="40.16304663922947" lon="9.348889079343827"><ele>954.3333333333334</ele><time>2026-04-29T10:19:21.882Z</time></trkpt><trkpt lat="40.1631921479771" lon="9.34900555281053"><ele>956.0</ele><time>2026-04-29T10:19:22.882Z</time></trkpt><trkpt lat="40.163338242117014" lon="9.349120966962115"><ele>956.0</ele><time>2026-04-29T10:19:23.882Z</time></trkpt><trkpt lat="40.163486263413255" lon="9.349236682368536"><ele>956.0</ele><time>2026-04-29T10:19:24.882Z</time></trkpt><trkpt lat="40.16364203676657" lon="9.349356815340636"><ele>956.0</ele><time>2026-04-29T10:19:25.882Z</time></trkpt><trkpt lat="40.16380342037342" lon="9.34948364512609"><ele>956.0</ele><time>2026-04-29T10:19:26.882Z</time></trkpt><trkpt lat="40.163965920741894" lon="9.349609053742542"><ele>956.0</ele><time>2026-04-29T10:19:27.882Z</time></trkpt><trkpt lat="40.164130705998424" lon="9.34973845424501"><ele>956.0</ele><time>2026-04-29T10:19:28.882Z</time></trkpt><trkpt lat="40.16430254735788" lon="9.349862989808303"><ele>958.3333333333334</ele><time>2026-04-29T10:19:29.882Z</time></trkpt><trkpt lat="40.16447452514671" lon="9.34998781737539"><ele>960.6666666666667</ele><time>2026-04-29T10:19:30.882Z</time></trkpt><trkpt lat="40.164643739803786" lon="9.350114272436857"><ele>963.0</ele><time>2026-04-29T10:19:31.882Z</time></trkpt><trkpt lat="40.16481802813295" lon="9.350236673225092"><ele>963.3333333333333</ele><time>2026-04-29T10:19:32.882Z</time></trkpt><trkpt lat="40.16499245802326" lon="9.350351942590061"><ele>963.6666666666666</ele><time>2026-04-29T10:19:33.882Z</time></trkpt><trkpt lat="40.16516488171686" lon="9.350465527505104"><ele>964.0</ele><time>2026-04-29T10:19:34.882Z</time></trkpt><trkpt lat="40.16533937986631" lon="9.350558409317724"><ele>966.3333333333333</ele><time>2026-04-29T10:19:35.882Z</time></trkpt><trkpt lat="40.16549657397882" lon="9.350660447832658"><ele>968.6666666666667</ele><time>2026-04-29T10:19:36.882Z</time></trkpt><trkpt lat="40.165646512802184" lon="9.350745384913374"><ele>971.0</ele><time>2026-04-29T10:19:37.882Z</time></trkpt><trkpt lat="40.165782113882734" lon="9.350807834170862"><ele>971.0</ele><time>2026-04-29T10:19:38.882Z</time></trkpt><trkpt lat="40.16588988732101" lon="9.350852483056928"><ele>970.9999999999999</ele><time>2026-04-29T10:19:39.882Z</time></trkpt><trkpt lat="40.16599665721427" lon="9.350869541043657"><ele>970.9999999999999</ele><time>2026-04-29T10:19:40.882Z</time></trkpt><trkpt lat="40.166097409367666" lon="9.350851357731043"><ele>971.0</ele><time>2026-04-29T10:19:41.881Z</time></trkpt><trkpt lat="40.16619998773079" lon="9.350805655939281"><ele>971.0</ele><time>2026-04-29T10:19:42.881Z</time></trkpt><trkpt lat="40.16630774305986" lon="9.350726863309658"><ele>971.0</ele><time>2026-04-29T10:19:43.881Z</time></trkpt><trkpt lat="40.16642825241906" lon="9.350660302505664"><ele>971.0</ele><time>2026-04-29T10:19:44.881Z</time></trkpt><trkpt lat="40.16655321305878" lon="9.35058959159932"><ele>971.0</ele><time>2026-04-29T10:19:45.881Z</time></trkpt><trkpt lat="40.16669014748689" lon="9.35051338896686"><ele>971.0</ele><time>2026-04-29T10:19:46.881Z</time></trkpt><trkpt lat="40.16684085769308" lon="9.3504327713045"><ele>971.3333333333334</ele><time>2026-04-29T10:19:47.881Z</time></trkpt><trkpt lat="40.16699736457199" lon="9.35034955530322"><ele>971.6666666666667</ele><time>2026-04-29T10:19:48.881Z</time></trkpt><trkpt lat="40.16715927429168" lon="9.350255541408297"><ele>972.0</ele><time>2026-04-29T10:19:49.881Z</time></trkpt><trkpt lat="40.167324048721795" lon="9.350161057458287"><ele>973.6666666666667</ele><time>2026-04-29T10:19:50.881Z</time></trkpt><trkpt lat="40.16748687828782" lon="9.350065545500602"><ele>975.3333333333334</ele><time>2026-04-29T10:19:51.88Z</time></trkpt><trkpt lat="40.167648301391246" lon="9.34997219980292"><ele>977.0</ele><time>2026-04-29T10:19:52.88Z</time></trkpt><trkpt lat="40.16781219850398" lon="9.349872362191277"><ele>977.0</ele><time>2026-04-29T10:19:53.882Z</time></trkpt><trkpt lat="40.16797514536881" lon="9.349780008681126"><ele>977.0</ele><time>2026-04-29T10:19:54.881Z</time></trkpt><trkpt lat="40.16813968644671" lon="9.349689895179354"><ele>977.0</ele><time>2026-04-29T10:19:55.881Z</time></trkpt><trkpt lat="40.168316933935905" lon="9.349613601748281"><ele>977.3333333333334</ele><time>2026-04-29T10:19:56.881Z</time></trkpt><trkpt lat="40.1684827882505" lon="9.349522551795932"><ele>977.6666666666667</ele><time>2026-04-29T10:19:57.881Z</time></trkpt><trkpt lat="40.1686504210366" lon="9.349428862996234"><ele>978.0</ele><time>2026-04-29T10:19:58.881Z</time></trkpt><trkpt lat="40.16881941983956" lon="9.349330699979914"><ele>978.0</ele><time>2026-04-29T10:19:59.881Z</time></trkpt><trkpt lat="40.16898311161188" lon="9.349230055791146"><ele>978.0</ele><time>2026-04-29T10:20:00.881Z</time></trkpt><trkpt lat="40.16914438833528" lon="9.349131875529158"><ele>978.0</ele><time>2026-04-29T10:20:01.881Z</time></trkpt><trkpt lat="40.16929837405755" lon="9.349025256496367"><ele>978.6666666666667</ele><time>2026-04-29T10:20:02.881Z</time></trkpt><trkpt lat="40.16947018318914" lon="9.348962956751441"><ele>979.3333333333334</ele><time>2026-04-29T10:20:03.881Z</time></trkpt><trkpt lat="40.16963018751153" lon="9.348903930329993"><ele>980.0</ele><time>2026-04-29T10:20:04.881Z</time></trkpt><trkpt lat="40.16980215569527" lon="9.348856579334853"><ele>980.5</ele><time>2026-04-29T10:20:05.881Z</time></trkpt><trkpt lat="40.169956535474434" lon="9.348812899765143"><ele>981.0</ele><time>2026-04-29T10:20:06.881Z</time></trkpt><trkpt lat="40.17008087338443" lon="9.348777252976559"><ele>981.5</ele><time>2026-04-29T10:20:07.881Z</time></trkpt><trkpt lat="40.17021277436901" lon="9.34873943610233"><ele>982.0</ele><time>2026-04-29T10:20:08.881Z</time></trkpt><trkpt lat="40.17036432372238" lon="9.348700675402295"><ele>982.0</ele><time>2026-04-29T10:20:09.881Z</time></trkpt><trkpt lat="40.170529927313275" lon="9.348658074491286"><ele>982.0</ele><time>2026-04-29T10:20:10.881Z</time></trkpt><trkpt lat="40.170674076903836" lon="9.34861476349836"><ele>982.0</ele><time>2026-04-29T10:20:11.881Z</time></trkpt><trkpt lat="40.170832333207365" lon="9.348569178835538"><ele>983.3333333333333</ele><time>2026-04-29T10:20:12.881Z</time></trkpt><trkpt lat="40.17098121705381" lon="9.3485217870942"><ele>984.6666666666667</ele><time>2026-04-29T10:20:13.881Z</time></trkpt><trkpt lat="40.17113208236668" lon="9.348479831134624"><ele>986.0</ele><time>2026-04-29T10:20:14.881Z</time></trkpt><trkpt lat="40.17128267992463" lon="9.348463205803462"><ele>986.0</ele><time>2026-04-29T10:20:15.881Z</time></trkpt><trkpt lat="40.17142178799851" lon="9.348430767077955"><ele>986.0</ele><time>2026-04-29T10:20:16.881Z</time></trkpt><trkpt lat="40.17155368692987" lon="9.348393464346872"><ele>986.0</ele><time>2026-04-29T10:20:17.881Z</time></trkpt><trkpt lat="40.171675742202765" lon="9.34835894573064"><ele>986.0</ele><time>2026-04-29T10:20:18.881Z</time></trkpt><trkpt lat="40.171789782639294" lon="9.348316762934127"><ele>986.25</ele><time>2026-04-29T10:20:19.881Z</time></trkpt><trkpt lat="40.17189018228953" lon="9.348257403284839"><ele>986.5</ele><time>2026-04-29T10:20:20.881Z</time></trkpt><trkpt lat="40.171999618938486" lon="9.348202234295925"><ele>986.75</ele><time>2026-04-29T10:20:21.881Z</time></trkpt><trkpt lat="40.172109769887236" lon="9.348118653466154"><ele>987.0</ele><time>2026-04-29T10:20:22.881Z</time></trkpt><trkpt lat="40.17221545089909" lon="9.348015022737354"><ele>986.0</ele><time>2026-04-29T10:20:23.881Z</time></trkpt><trkpt lat="40.17232882970602" lon="9.347899966979663"><ele>985.0</ele><time>2026-04-29T10:20:24.881Z</time></trkpt><trkpt lat="40.17245396253668" lon="9.347775899691841"><ele>984.0</ele><time>2026-04-29T10:20:25.881Z</time></trkpt><trkpt lat="40.17258323387148" lon="9.347644053847382"><ele>983.6666666666667</ele><time>2026-04-29T10:20:26.881Z</time></trkpt><trkpt lat="40.172716483574426" lon="9.347512045954616"><ele>983.3333333333334</ele><time>2026-04-29T10:20:27.881Z</time></trkpt><trkpt lat="40.1728545259266" lon="9.34737490002337"><ele>983.0</ele><time>2026-04-29T10:20:28.881Z</time></trkpt><trkpt lat="40.17299553953636" lon="9.347232813211248"><ele>982.6666666666667</ele><time>2026-04-29T10:20:29.881Z</time></trkpt><trkpt lat="40.17314236298225" lon="9.347088812513137"><ele>982.3333333333333</ele><time>2026-04-29T10:20:30.881Z</time></trkpt><trkpt lat="40.17328855169096" lon="9.34694827528454"><ele>982.0</ele><time>2026-04-29T10:20:31.881Z</time></trkpt><trkpt lat="40.1734398117448" lon="9.346806824398634"><ele>979.6666666666666</ele><time>2026-04-29T10:20:32.881Z</time></trkpt><trkpt lat="40.173579974988016" lon="9.34666975530509"><ele>977.3333333333333</ele><time>2026-04-29T10:20:33.881Z</time></trkpt><trkpt lat="40.17371429090348" lon="9.346560756499782"><ele>975.0</ele><time>2026-04-29T10:20:34.881Z</time></trkpt><trkpt lat="40.17383049792546" lon="9.346454663605074"><ele>973.0</ele><time>2026-04-29T10:20:35.881Z</time></trkpt><trkpt lat="40.173940647314765" lon="9.34634534677623"><ele>971.0</ele><time>2026-04-29T10:20:36.881Z</time></trkpt><trkpt lat="40.174061448934005" lon="9.346252392047314"><ele>969.0</ele><time>2026-04-29T10:20:37.881Z</time></trkpt><trkpt lat="40.17420518067587" lon="9.346183079553338"><ele>967.0</ele><time>2026-04-29T10:20:38.881Z</time></trkpt><trkpt lat="40.174366278484634" lon="9.346126828368638"><ele>966.6666666666666</ele><time>2026-04-29T10:20:39.881Z</time></trkpt><trkpt lat="40.174531714160935" lon="9.346069889688827"><ele>966.3333333333333</ele><time>2026-04-29T10:20:40.881Z</time></trkpt><trkpt lat="40.17469283007398" lon="9.346016175566561"><ele>966.0</ele><time>2026-04-29T10:20:41.881Z</time></trkpt><trkpt lat="40.174860193382074" lon="9.345985420329932"><ele>967.6666666666667</ele><time>2026-04-29T10:20:42.881Z</time></trkpt><trkpt lat="40.17503271178496" lon="9.34595309957228"><ele>969.3333333333334</ele><time>2026-04-29T10:20:43.881Z</time></trkpt><trkpt lat="40.17521206885791" lon="9.345924247021298"><ele>971.0</ele><time>2026-04-29T10:20:44.881Z</time></trkpt><trkpt lat="40.1753863529271" lon="9.345896081304167"><ele>971.0</ele><time>2026-04-29T10:20:45.881Z</time></trkpt><trkpt lat="40.1755504700095" lon="9.34586141670934"><ele>971.0</ele><time>2026-04-29T10:20:46.881Z</time></trkpt><trkpt lat="40.17571193939136" lon="9.345821809770234"><ele>971.0</ele><time>2026-04-29T10:20:47.881Z</time></trkpt><trkpt lat="40.175859750467886" lon="9.345785966212588"><ele>972.0</ele><time>2026-04-29T10:20:48.881Z</time></trkpt><trkpt lat="40.17599515132173" lon="9.345732998156643"><ele>973.0</ele><time>2026-04-29T10:20:49.881Z</time></trkpt><trkpt lat="40.17612165245937" lon="9.345659072643645"><ele>974.0</ele><time>2026-04-29T10:20:50.881Z</time></trkpt><trkpt lat="40.17624690813551" lon="9.345560288013681"><ele>975.0</ele><time>2026-04-29T10:20:51.881Z</time></trkpt><trkpt lat="40.17636293259997" lon="9.34545659512902"><ele>971.6</ele><time>2026-04-29T10:20:52.881Z</time></trkpt><trkpt lat="40.176467981784484" lon="9.34537172535472"><ele>968.2</ele><time>2026-04-29T10:20:53.881Z</time></trkpt><trkpt lat="40.176568123680056" lon="9.345330259666795"><ele>964.8</ele><time>2026-04-29T10:20:54.881Z</time></trkpt><trkpt lat="40.176659909985304" lon="9.34531313147908"><ele>961.4</ele><time>2026-04-29T10:20:55.881Z</time></trkpt><trkpt lat="40.17674703339165" lon="9.34533068447316"><ele>958.0</ele><time>2026-04-29T10:20:56.881Z</time></trkpt><trkpt lat="40.17681087851594" lon="9.345430826297415"><ele>958.0</ele><time>2026-04-29T10:20:57.881Z</time></trkpt><trkpt lat="40.176901749252" lon="9.345491082795348"><ele>958.0</ele><time>2026-04-29T10:20:58.881Z</time></trkpt><trkpt lat="40.17699097525603" lon="9.34557680733477"><ele>958.0</ele><time>2026-04-29T10:20:59.881Z</time></trkpt><trkpt lat="40.177072819027366" lon="9.345629896227969"><ele>958.0</ele><time>2026-04-29T10:21:00.881Z</time></trkpt><trkpt lat="40.17716029109678" lon="9.34563785417704"><ele>958.0</ele><time>2026-04-29T10:21:01.881Z</time></trkpt><trkpt lat="40.17724153040678" lon="9.345619788358555"><ele>958.4</ele><time>2026-04-29T10:21:02.881Z</time></trkpt><trkpt lat="40.17732302057041" lon="9.345552528085724"><ele>958.8</ele><time>2026-04-29T10:21:03.881Z</time></trkpt><trkpt lat="40.1774035532627" lon="9.345469907132024"><ele>959.2</ele><time>2026-04-29T10:21:04.881Z</time></trkpt><trkpt lat="40.17748980286737" lon="9.345366723397817"><ele>959.6</ele><time>2026-04-29T10:21:05.881Z</time></trkpt><trkpt lat="40.17757324847411" lon="9.345243254382959"><ele>960.0</ele><time>2026-04-29T10:21:06.881Z</time></trkpt><trkpt lat="40.17765346182934" lon="9.345121229623272"><ele>960.0</ele><time>2026-04-29T10:21:07.881Z</time></trkpt><trkpt lat="40.177738822868626" lon="9.345007544266426"><ele>960.0</ele><time>2026-04-29T10:21:08.881Z</time></trkpt><trkpt lat="40.17782435151344" lon="9.344917305820927"><ele>960.0</ele><time>2026-04-29T10:21:09.881Z</time></trkpt><trkpt lat="40.17791307337606" lon="9.344853982391047"><ele>960.0</ele><time>2026-04-29T10:21:10.881Z</time></trkpt><trkpt lat="40.17802529743874" lon="9.344849340919772"><ele>960.0</ele><time>2026-04-29T10:21:11.881Z</time></trkpt><trkpt lat="40.17813553979678" lon="9.34485531994515"><ele>961.0</ele><time>2026-04-29T10:21:12.881Z</time></trkpt><trkpt lat="40.178250302159654" lon="9.344845004602819"><ele>962.0</ele><time>2026-04-29T10:21:13.881Z</time></trkpt><trkpt lat="40.178377396109774" lon="9.344866268566921"><ele>963.0</ele><time>2026-04-29T10:21:14.881Z</time></trkpt><trkpt lat="40.17851127071018" lon="9.34489268335666"><ele>964.0</ele><time>2026-04-29T10:21:15.881Z</time></trkpt><trkpt lat="40.17865772315831" lon="9.344910914932811"><ele>964.0</ele><time>2026-04-29T10:21:16.881Z</time></trkpt><trkpt lat="40.17880857101902" lon="9.344924021477809"><ele>964.0</ele><time>2026-04-29T10:21:17.882Z</time></trkpt><trkpt lat="40.178956447583666" lon="9.34493629817519"><ele>964.0</ele><time>2026-04-29T10:21:18.882Z</time></trkpt><trkpt lat="40.179107555972195" lon="9.344950543919003"><ele>962.25</ele><time>2026-04-29T10:21:19.882Z</time></trkpt><trkpt lat="40.17925634820048" lon="9.344961662633803"><ele>960.5</ele><time>2026-04-29T10:21:20.882Z</time></trkpt><trkpt lat="40.179395693984596" lon="9.344982891596397"><ele>958.75</ele><time>2026-04-29T10:21:21.882Z</time></trkpt><trkpt lat="40.179529821257034" lon="9.34499773034555"><ele>957.0</ele><time>2026-04-29T10:21:22.882Z</time></trkpt><trkpt lat="40.179662464930594" lon="9.3450148273522"><ele>957.0</ele><time>2026-04-29T10:21:23.882Z</time></trkpt><trkpt lat="40.17979310637189" lon="9.345036776277723"><ele>957.0</ele><time>2026-04-29T10:21:24.882Z</time></trkpt><trkpt lat="40.17990425635728" lon="9.345066784788372"><ele>957.0</ele><time>2026-04-29T10:21:25.882Z</time></trkpt><trkpt lat="40.180005215255996" lon="9.345111485903931"><ele>957.0</ele><time>2026-04-29T10:21:26.882Z</time></trkpt><trkpt lat="40.180089494253224" lon="9.345174475742505"><ele>957.0</ele><time>2026-04-29T10:21:27.882Z</time></trkpt><trkpt lat="40.18015088568153" lon="9.345257556696955"><ele>957.6</ele><time>2026-04-29T10:21:28.882Z</time></trkpt><trkpt lat="40.18018310537083" lon="9.34536209550321"><ele>958.2</ele><time>2026-04-29T10:21:29.882Z</time></trkpt><trkpt lat="40.18018820316102" lon="9.345485832398749"><ele>958.8</ele><time>2026-04-29T10:21:30.882Z</time></trkpt><trkpt lat="40.180216142770185" lon="9.34562386312638"><ele>959.4</ele><time>2026-04-29T10:21:31.882Z</time></trkpt><trkpt lat="40.18025656428725" lon="9.345779760898276"><ele>960.0</ele><time>2026-04-29T10:21:32.882Z</time></trkpt><trkpt lat="40.18028670194759" lon="9.345949521551931"><ele>960.0</ele><time>2026-04-29T10:21:33.882Z</time></trkpt><trkpt lat="40.18031965578067" lon="9.346098578632063"><ele>960.0</ele><time>2026-04-29T10:21:34.882Z</time></trkpt><trkpt lat="40.180358299385546" lon="9.346221222383745"><ele>960.0</ele><time>2026-04-29T10:21:35.882Z</time></trkpt><trkpt lat="40.180417678639444" lon="9.346331992105705"><ele>960.0</ele><time>2026-04-29T10:21:36.882Z</time></trkpt><trkpt lat="40.180489329112945" lon="9.346431024685074"><ele>960.0</ele><time>2026-04-29T10:21:37.882Z</time></trkpt><trkpt lat="40.180571098841625" lon="9.346516518390033"><ele>963.25</ele><time>2026-04-29T10:21:38.882Z</time></trkpt><trkpt lat="40.180668705226175" lon="9.346591218250234"><ele>966.5</ele><time>2026-04-29T10:21:39.882Z</time></trkpt><trkpt lat="40.180787282113705" lon="9.346643834321837"><ele>969.75</ele><time>2026-04-29T10:21:40.882Z</time></trkpt><trkpt lat="40.1809019528593" lon="9.346695176592188"><ele>973.0</ele><time>2026-04-29T10:21:41.882Z</time></trkpt><trkpt lat="40.18103150503326" lon="9.34674632707688"><ele>966.0</ele><time>2026-04-29T10:21:42.882Z</time></trkpt><trkpt lat="40.181168281054916" lon="9.346794252862974"><ele>959.0</ele><time>2026-04-29T10:21:43.882Z</time></trkpt><trkpt lat="40.181305206051746" lon="9.346848127571585"><ele>952.0</ele><time>2026-04-29T10:21:44.882Z</time></trkpt><trkpt lat="40.18144088174406" lon="9.34690453038436"><ele>945.0</ele><time>2026-04-29T10:21:45.882Z</time></trkpt><trkpt lat="40.18157493637122" lon="9.346966505958216"><ele>941.75</ele><time>2026-04-29T10:21:46.882Z</time></trkpt><trkpt lat="40.181703286553905" lon="9.347029058962935"><ele>938.5</ele><time>2026-04-29T10:21:47.881Z</time></trkpt><trkpt lat="40.18183660703167" lon="9.347105863792482"><ele>935.25</ele><time>2026-04-29T10:21:48.881Z</time></trkpt><trkpt lat="40.18196318888082" lon="9.34719208123527"><ele>932.0</ele><time>2026-04-29T10:21:49.881Z</time></trkpt><trkpt lat="40.18208184797368" lon="9.347293050860925"><ele>933.0</ele><time>2026-04-29T10:21:50.881Z</time></trkpt><trkpt lat="40.18220012792088" lon="9.347414100282625"><ele>934.0</ele><time>2026-04-29T10:21:51.881Z</time></trkpt><trkpt lat="40.18231482995416" lon="9.347545048270115"><ele>935.0</ele><time>2026-04-29T10:21:52.881Z</time></trkpt><trkpt lat="40.182430557044626" lon="9.347689060049603"><ele>935.0</ele><time>2026-04-29T10:21:53.881Z</time></trkpt><trkpt lat="40.18255367649173" lon="9.347840183198764"><ele>935.0</ele><time>2026-04-29T10:21:54.881Z</time></trkpt><trkpt lat="40.18267541875042" lon="9.347988982014012"><ele>935.0</ele><time>2026-04-29T10:21:55.881Z</time></trkpt><trkpt lat="40.182794999187244" lon="9.348123020070123"><ele>938.6666666666667</ele><time>2026-04-29T10:21:56.881Z</time></trkpt><trkpt lat="40.18290977961078" lon="9.348270296253544"><ele>942.3333333333333</ele><time>2026-04-29T10:21:57.881Z</time></trkpt><trkpt lat="40.183027502611665" lon="9.348413838915265"><ele>946.0</ele><time>2026-04-29T10:21:58.881Z</time></trkpt><trkpt lat="40.18314469886669" lon="9.348560368098742"><ele>944.0</ele><time>2026-04-29T10:21:59.88Z</time></trkpt><trkpt lat="40.18325569327725" lon="9.348684620708417"><ele>942.0</ele><time>2026-04-29T10:22:00.881Z</time></trkpt><trkpt lat="40.18335484126562" lon="9.348810566087899"><ele>940.0</ele><time>2026-04-29T10:22:01.881Z</time></trkpt><trkpt lat="40.183424768846656" lon="9.34892699371122"><ele>938.0</ele><time>2026-04-29T10:22:02.881Z</time></trkpt><trkpt lat="40.18346737568628" lon="9.349045311943156"><ele>938.0</ele><time>2026-04-29T10:22:03.881Z</time></trkpt><trkpt lat="40.18347616677135" lon="9.349167012387056"><ele>938.0</ele><time>2026-04-29T10:22:04.881Z</time></trkpt><trkpt lat="40.18346689943976" lon="9.349302677859884"><ele>938.0</ele><time>2026-04-29T10:22:05.881Z</time></trkpt><trkpt lat="40.183415251609475" lon="9.34943859618047"><ele>938.0</ele><time>2026-04-29T10:22:06.881Z</time></trkpt><trkpt lat="40.183402245655934" lon="9.349566020843634"><ele>938.0</ele><time>2026-04-29T10:22:07.881Z</time></trkpt><trkpt lat="40.18341368339207" lon="9.349684582972735"><ele>938.0</ele><time>2026-04-29T10:22:08.881Z</time></trkpt><trkpt lat="40.18344501527234" lon="9.349794754638697"><ele>938.0</ele><time>2026-04-29T10:22:09.881Z</time></trkpt><trkpt lat="40.18349703861606" lon="9.349886048753909"><ele>938.0</ele><time>2026-04-29T10:22:10.881Z</time></trkpt><trkpt lat="40.18356220316759" lon="9.349950916838047"><ele>938.0</ele><time>2026-04-29T10:22:11.881Z</time></trkpt><trkpt lat="40.18364220989895" lon="9.349998014887255"><ele>938.0</ele><time>2026-04-29T10:22:12.881Z</time></trkpt><trkpt lat="40.18374419404266" lon="9.350024735052093"><ele>938.0</ele><time>2026-04-29T10:22:13.881Z</time></trkpt><trkpt lat="40.18384624326546" lon="9.350017196461398"><ele>938.0</ele><time>2026-04-29T10:22:14.881Z</time></trkpt><trkpt lat="40.183948562486115" lon="9.349976854626604"><ele>938.0</ele><time>2026-04-29T10:22:15.881Z</time></trkpt><trkpt lat="40.18406294731873" lon="9.349930909389487"><ele>938.0</ele><time>2026-04-29T10:22:16.881Z</time></trkpt><trkpt lat="40.184178755487586" lon="9.34988728550441"><ele>938.0</ele><time>2026-04-29T10:22:17.881Z</time></trkpt><trkpt lat="40.18430019213502" lon="9.349837761613234"><ele>936.5</ele><time>2026-04-29T10:22:18.881Z</time></trkpt><trkpt lat="40.18443826173463" lon="9.349804280160642"><ele>935.0</ele><time>2026-04-29T10:22:19.881Z</time></trkpt><trkpt lat="40.1845703069479" lon="9.349769778354979"><ele>933.5</ele><time>2026-04-29T10:22:20.881Z</time></trkpt><trkpt lat="40.18469358569766" lon="9.34973248405466"><ele>932.0</ele><time>2026-04-29T10:22:21.881Z</time></trkpt><trkpt lat="40.184825774803656" lon="9.349716866625315"><ele>930.75</ele><time>2026-04-29T10:22:22.881Z</time></trkpt><trkpt lat="40.18496004791783" lon="9.34971196075608"><ele>929.5</ele><time>2026-04-29T10:22:23.881Z</time></trkpt><trkpt lat="40.185091746100795" lon="9.349720757958611"><ele>928.25</ele><time>2026-04-29T10:22:24.881Z</time></trkpt><trkpt lat="40.18522570384613" lon="9.349711864554672"><ele>927.0</ele><time>2026-04-29T10:22:25.881Z</time></trkpt><trkpt lat="40.18535792487323" lon="9.349685658687788"><ele>926.5</ele><time>2026-04-29T10:22:26.881Z</time></trkpt><trkpt lat="40.185478202997075" lon="9.349639104631994"><ele>926.0</ele><time>2026-04-29T10:22:27.881Z</time></trkpt><trkpt lat="40.18559829418884" lon="9.349599986557802"><ele>925.5</ele><time>2026-04-29T10:22:28.881Z</time></trkpt><trkpt lat="40.185711227167324" lon="9.349560559337746"><ele>925.0</ele><time>2026-04-29T10:22:29.881Z</time></trkpt><trkpt lat="40.18581366931858" lon="9.349542705327856"><ele>924.2</ele><time>2026-04-29T10:22:30.881Z</time></trkpt><trkpt lat="40.18590621401817" lon="9.349547623711578"><ele>923.4</ele><time>2026-04-29T10:22:31.881Z</time></trkpt><trkpt lat="40.18598707606958" lon="9.349576392050428"><ele>922.5999999999999</ele><time>2026-04-29T10:22:32.881Z</time></trkpt><trkpt lat="40.18608733296757" lon="9.349641773867926"><ele>921.8</ele><time>2026-04-29T10:22:33.881Z</time></trkpt><trkpt lat="40.18616243425276" lon="9.349739574413356"><ele>921.0</ele><time>2026-04-29T10:22:34.881Z</time></trkpt><trkpt lat="40.186227662080384" lon="9.349852847869089"><ele>921.0</ele><time>2026-04-29T10:22:35.881Z</time></trkpt><trkpt lat="40.186264425177434" lon="9.34998995075998"><ele>921.0</ele><time>2026-04-29T10:22:36.881Z</time></trkpt><trkpt lat="40.1863224675124" lon="9.350129479307697"><ele>921.0</ele><time>2026-04-29T10:22:37.881Z</time></trkpt><trkpt lat="40.18638192786389" lon="9.35027996760416"><ele>921.0</ele><time>2026-04-29T10:22:38.881Z</time></trkpt><trkpt lat="40.18643502736531" lon="9.350426202754175"><ele>923.0</ele><time>2026-04-29T10:22:39.881Z</time></trkpt><trkpt lat="40.18647673399905" lon="9.350570745892936"><ele>925.0</ele><time>2026-04-29T10:22:40.881Z</time></trkpt><trkpt lat="40.18652728743287" lon="9.350719524965303"><ele>927.0</ele><time>2026-04-29T10:22:41.881Z</time></trkpt><trkpt lat="40.18658247699021" lon="9.350883605550008"><ele>929.0</ele><time>2026-04-29T10:22:42.881Z</time></trkpt><trkpt lat="40.18666051264914" lon="9.35105762204565"><ele>923.5</ele><time>2026-04-29T10:22:43.881Z</time></trkpt><trkpt lat="40.18672647568066" lon="9.351105543185088"><ele>918.0</ele><time>2026-04-29T10:22:44.881Z</time></trkpt><trkpt lat="40.18681161434198" lon="9.35124592029018"><ele>912.5</ele><time>2026-04-29T10:22:45.881Z</time></trkpt><trkpt lat="40.18689222798586" lon="9.351382813168547"><ele>907.0</ele><time>2026-04-29T10:22:46.881Z</time></trkpt><trkpt lat="40.186983635741456" lon="9.35151392305738"><ele>907.0</ele><time>2026-04-29T10:22:47.881Z</time></trkpt><trkpt lat="40.18706103344967" lon="9.351631161260844"><ele>907.0</ele><time>2026-04-29T10:22:48.881Z</time></trkpt><trkpt lat="40.18714772318288" lon="9.351722627135302"><ele>907.0</ele><time>2026-04-29T10:22:49.881Z</time></trkpt><trkpt lat="40.18722392305668" lon="9.35178181444291"><ele>907.0</ele><time>2026-04-29T10:22:50.881Z</time></trkpt><trkpt lat="40.18731550324383" lon="9.351811837439701"><ele>907.0</ele><time>2026-04-29T10:22:51.881Z</time></trkpt><trkpt lat="40.18740697884722" lon="9.351800918985624"><ele>903.8</ele><time>2026-04-29T10:22:52.881Z</time></trkpt><trkpt lat="40.18750351101826" lon="9.351772732695881"><ele>900.6</ele><time>2026-04-29T10:22:53.881Z</time></trkpt><trkpt lat="40.18759499068185" lon="9.35171858637271"><ele>897.3999999999999</ele><time>2026-04-29T10:22:54.881Z</time></trkpt><trkpt lat="40.187684472336684" lon="9.351636463858764"><ele>894.1999999999999</ele><time>2026-04-29T10:22:55.881Z</time></trkpt><trkpt lat="40.18776914180214" lon="9.351538166903978"><ele>891.0</ele><time>2026-04-29T10:22:56.881Z</time></trkpt><trkpt lat="40.18785275396303" lon="9.35143127440761"><ele>889.8</ele><time>2026-04-29T10:22:57.881Z</time></trkpt><trkpt lat="40.187930612280496" lon="9.351343354323188"><ele>888.5999999999999</ele><time>2026-04-29T10:22:58.881Z</time></trkpt><trkpt lat="40.188001016513105" lon="9.351252866493702"><ele>887.4</ele><time>2026-04-29T10:22:59.881Z</time></trkpt><trkpt lat="40.188076256037306" lon="9.35118191630291"><ele>886.2</ele><time>2026-04-29T10:23:00.881Z</time></trkpt><trkpt lat="40.18815553895912" lon="9.351118000705315"><ele>885.0</ele><time>2026-04-29T10:23:01.881Z</time></trkpt><trkpt lat="40.18824198220717" lon="9.351082533178328"><ele>883.0</ele><time>2026-04-29T10:23:02.881Z</time></trkpt><trkpt lat="40.188331098421486" lon="9.351056493546167"><ele>881.0</ele><time>2026-04-29T10:23:03.881Z</time></trkpt><trkpt lat="40.18841154613301" lon="9.351065145018291"><ele>879.0</ele><time>2026-04-29T10:23:04.881Z</time></trkpt><trkpt lat="40.188489346135256" lon="9.35113354994931"><ele>877.0</ele><time>2026-04-29T10:23:05.881Z</time></trkpt><trkpt lat="40.18858770676304" lon="9.3511710353965"><ele>875.0</ele><time>2026-04-29T10:23:06.881Z</time></trkpt><trkpt lat="40.188692226126925" lon="9.351256735719153"><ele>875.0</ele><time>2026-04-29T10:23:07.881Z</time></trkpt><trkpt lat="40.18878808564692" lon="9.351317086761336"><ele>875.0</ele><time>2026-04-29T10:23:08.881Z</time></trkpt><trkpt lat="40.18890152111205" lon="9.351372771407208"><ele>875.0</ele><time>2026-04-29T10:23:09.881Z</time></trkpt><trkpt lat="40.1889991070647" lon="9.351443069007983"><ele>875.0</ele><time>2026-04-29T10:23:10.881Z</time></trkpt><trkpt lat="40.18910174653598" lon="9.351489324690554"><ele>875.0</ele><time>2026-04-29T10:23:11.881Z</time></trkpt><trkpt lat="40.18919336613642" lon="9.351515489595519"><ele>875.8</ele><time>2026-04-29T10:23:12.881Z</time></trkpt><trkpt lat="40.18930684509862" lon="9.35151396267694"><ele>876.6</ele><time>2026-04-29T10:23:13.881Z</time></trkpt><trkpt lat="40.18941039165875" lon="9.351494894242261"><ele>877.4000000000001</ele><time>2026-04-29T10:23:14.881Z</time></trkpt><trkpt lat="40.18950947001469" lon="9.351462951954858"><ele>878.2</ele><time>2026-04-29T10:23:15.881Z</time></trkpt><trkpt lat="40.18960403295313" lon="9.35146312257927"><ele>879.0</ele><time>2026-04-29T10:23:16.881Z</time></trkpt><trkpt lat="40.18969596419426" lon="9.351490782354553"><ele>879.0</ele><time>2026-04-29T10:23:17.881Z</time></trkpt><trkpt lat="40.18978218212159" lon="9.351553171805765"><ele>879.0000000000001</ele><time>2026-04-29T10:23:18.881Z</time></trkpt><trkpt lat="40.18987011844135" lon="9.351638575098637"><ele>879.0000000000001</ele><time>2026-04-29T10:23:19.881Z</time></trkpt><trkpt lat="40.18994742925655" lon="9.351744148971484"><ele>879.0</ele><time>2026-04-29T10:23:20.881Z</time></trkpt><trkpt lat="40.190005177720316" lon="9.35186684431293"><ele>879.0</ele><time>2026-04-29T10:23:21.882Z</time></trkpt><trkpt lat="40.190053684896654" lon="9.352006698461569"><ele>876.0</ele><time>2026-04-29T10:23:22.882Z</time></trkpt><trkpt lat="40.190087426124094" lon="9.352153800868683"><ele>873.0</ele><time>2026-04-29T10:23:23.882Z</time></trkpt><trkpt lat="40.19011016650835" lon="9.352309882985166"><ele>870.0</ele><time>2026-04-29T10:23:24.882Z</time></trkpt><trkpt lat="40.19014706711207" lon="9.352477463129903"><ele>867.0</ele><time>2026-04-29T10:23:25.882Z</time></trkpt><trkpt lat="40.19018579833858" lon="9.352632955350328"><ele>867.0</ele><time>2026-04-29T10:23:26.882Z</time></trkpt><trkpt lat="40.19021958320257" lon="9.35277860499847"><ele>867.0</ele><time>2026-04-29T10:23:27.882Z</time></trkpt><trkpt lat="40.19027871779776" lon="9.352919623964109"><ele>867.0</ele><time>2026-04-29T10:23:28.882Z</time></trkpt><trkpt lat="40.19034261322586" lon="9.353037144985922"><ele>867.0</ele><time>2026-04-29T10:23:29.882Z</time></trkpt><trkpt lat="40.1904148277617" lon="9.353140106651416"><ele>868.25</ele><time>2026-04-29T10:23:30.882Z</time></trkpt><trkpt lat="40.19051188022847" lon="9.353205057186374"><ele>869.5</ele><time>2026-04-29T10:23:31.882Z</time></trkpt><trkpt lat="40.190622289539874" lon="9.353256667560924"><ele>870.75</ele><time>2026-04-29T10:23:32.882Z</time></trkpt><trkpt lat="40.190743918399455" lon="9.353273346726208"><ele>872.0</ele><time>2026-04-29T10:23:33.882Z</time></trkpt><trkpt lat="40.19087414076773" lon="9.353267476119603"><ele>868.0</ele><time>2026-04-29T10:23:34.882Z</time></trkpt><trkpt lat="40.19099640734323" lon="9.353217301334803"><ele>864.0</ele><time>2026-04-29T10:23:35.882Z</time></trkpt><trkpt lat="40.191119382919155" lon="9.353163763390043"><ele>860.0</ele><time>2026-04-29T10:23:36.882Z</time></trkpt><trkpt lat="40.19123879324931" lon="9.353121607120746"><ele>856.0</ele><time>2026-04-29T10:23:37.882Z</time></trkpt><trkpt lat="40.19136275486088" lon="9.353082663169221"><ele>856.0</ele><time>2026-04-29T10:23:38.882Z</time></trkpt><trkpt lat="40.19148145268277" lon="9.353052079887734"><ele>855.9999999999999</ele><time>2026-04-29T10:23:39.882Z</time></trkpt><trkpt lat="40.191592579866374" lon="9.35302632373995"><ele>855.9999999999999</ele><time>2026-04-29T10:23:40.882Z</time></trkpt><trkpt lat="40.191693003832576" lon="9.353022374245784"><ele>856.0</ele><time>2026-04-29T10:23:41.882Z</time></trkpt><trkpt lat="40.1917920131696" lon="9.35305865168745"><ele>856.0</ele><time>2026-04-29T10:23:42.882Z</time></trkpt><trkpt lat="40.19187546838438" lon="9.353149526340388"><ele>854.0</ele><time>2026-04-29T10:23:43.882Z</time></trkpt><trkpt lat="40.19194382057551" lon="9.353264423749428"><ele>852.0</ele><time>2026-04-29T10:23:44.882Z</time></trkpt><trkpt lat="40.19199891982987" lon="9.353397652187986"><ele>850.0</ele><time>2026-04-29T10:23:45.882Z</time></trkpt><trkpt lat="40.19203248492902" lon="9.353556065732228"><ele>848.0</ele><time>2026-04-29T10:23:46.882Z</time></trkpt><trkpt lat="40.19205428578059" lon="9.353725765343885"><ele>848.75</ele><time>2026-04-29T10:23:47.882Z</time></trkpt><trkpt lat="40.19207195894666" lon="9.353908788706198"><ele>849.5</ele><time>2026-04-29T10:23:48.882Z</time></trkpt><trkpt lat="40.19209307106131" lon="9.35409179186719"><ele>850.25</ele><time>2026-04-29T10:23:49.882Z</time></trkpt><trkpt lat="40.19212121450243" lon="9.354276029905671"><ele>851.0</ele><time>2026-04-29T10:23:50.882Z</time></trkpt><trkpt lat="40.192151861132885" lon="9.354456856981507"><ele>851.0</ele><time>2026-04-29T10:23:51.882Z</time></trkpt><trkpt lat="40.192184818157706" lon="9.354616879638709"><ele>851.0</ele><time>2026-04-29T10:23:52.882Z</time></trkpt><trkpt lat="40.19222537032729" lon="9.35475766245423"><ele>851.0</ele><time>2026-04-29T10:23:53.881Z</time></trkpt><trkpt lat="40.192305117274735" lon="9.354901112396512"><ele>851.0</ele><time>2026-04-29T10:23:54.88Z</time></trkpt><trkpt lat="40.19238451217748" lon="9.354990314108685"><ele>846.0</ele><time>2026-04-29T10:23:55.88Z</time></trkpt><trkpt lat="40.192466668971576" lon="9.355077458139712"><ele>841.0</ele><time>2026-04-29T10:23:56.881Z</time></trkpt><trkpt lat="40.19258077121742" lon="9.355147045135917"><ele>836.0</ele><time>2026-04-29T10:23:57.88Z</time></trkpt><trkpt lat="40.19267937268857" lon="9.35521173064553"><ele>831.0</ele><time>2026-04-29T10:23:58.88Z</time></trkpt><trkpt lat="40.19279125528772" lon="9.355272275168062"><ele>831.0</ele><time>2026-04-29T10:23:59.88Z</time></trkpt><trkpt lat="40.192918818514684" lon="9.355297898082716"><ele>831.0</ele><time>2026-04-29T10:24:00.881Z</time></trkpt><trkpt lat="40.19303080631488" lon="9.355301741388388"><ele>831.0</ele><time>2026-04-29T10:24:01.881Z</time></trkpt><trkpt lat="40.19312048188244" lon="9.355282049337093"><ele>831.0</ele><time>2026-04-29T10:24:02.881Z</time></trkpt><trkpt lat="40.19321364451888" lon="9.355211140005055"><ele>831.0</ele><time>2026-04-29T10:24:03.88Z</time></trkpt><trkpt lat="40.19330636769272" lon="9.355110661904579"><ele>829.0</ele><time>2026-04-29T10:24:04.88Z</time></trkpt><trkpt lat="40.19339007560556" lon="9.35499571720473"><ele>827.0</ele><time>2026-04-29T10:24:05.881Z</time></trkpt><trkpt lat="40.19347362952553" lon="9.354866857113393"><ele>825.0</ele><time>2026-04-29T10:24:06.88Z</time></trkpt><trkpt lat="40.193558427823234" lon="9.35473343735248"><ele>823.0</ele><time>2026-04-29T10:24:07.88Z</time></trkpt><trkpt lat="40.19364286890525" lon="9.35460874548232"><ele>821.25</ele><time>2026-04-29T10:24:08.88Z</time></trkpt><trkpt lat="40.19373026815269" lon="9.35448191457574"><ele>819.5</ele><time>2026-04-29T10:24:09.88Z</time></trkpt><trkpt lat="40.19382273352121" lon="9.354351443450122"><ele>817.75</ele><time>2026-04-29T10:24:10.88Z</time></trkpt><trkpt lat="40.19392040050116" lon="9.354214666020836"><ele>816.0</ele><time>2026-04-29T10:24:11.88Z</time></trkpt><trkpt lat="40.194015998284414" lon="9.354074867156795"><ele>816.0</ele><time>2026-04-29T10:24:12.88Z</time></trkpt><trkpt lat="40.194113668345494" lon="9.35393129629006"><ele>816.0</ele><time>2026-04-29T10:24:13.881Z</time></trkpt><trkpt lat="40.194207619755936" lon="9.353791066390452"><ele>816.0</ele><time>2026-04-29T10:24:14.881Z</time></trkpt><trkpt lat="40.194298329531456" lon="9.35365596682671"><ele>816.0</ele><time>2026-04-29T10:24:15.881Z</time></trkpt><trkpt lat="40.19438961707312" lon="9.353520859028869"><ele>813.0</ele><time>2026-04-29T10:24:16.881Z</time></trkpt><trkpt lat="40.19447517245141" lon="9.353378857480529"><ele>810.0</ele><time>2026-04-29T10:24:17.881Z</time></trkpt><trkpt lat="40.194571625070026" lon="9.353258175577992"><ele>807.0</ele><time>2026-04-29T10:24:18.881Z</time></trkpt><trkpt lat="40.194671651087894" lon="9.353144277490847"><ele>804.0</ele><time>2026-04-29T10:24:19.881Z</time></trkpt><trkpt lat="40.194793273076144" lon="9.353064597592834"><ele>802.75</ele><time>2026-04-29T10:24:20.881Z</time></trkpt><trkpt lat="40.194903226124815" lon="9.352971374993208"><ele>801.5</ele><time>2026-04-29T10:24:21.881Z</time></trkpt><trkpt lat="40.19499782488185" lon="9.352870389451223"><ele>800.25</ele><time>2026-04-29T10:24:22.881Z</time></trkpt><trkpt lat="40.19506657311622" lon="9.352762669782136"><ele>799.0</ele><time>2026-04-29T10:24:23.881Z</time></trkpt><trkpt lat="40.19511249906876" lon="9.352618818069178"><ele>799.0</ele><time>2026-04-29T10:24:24.881Z</time></trkpt><trkpt lat="40.1951561913986" lon="9.352488093074163"><ele>799.0</ele><time>2026-04-29T10:24:25.881Z</time></trkpt><trkpt lat="40.19518561595688" lon="9.352315667271547"><ele>799.0</ele><time>2026-04-29T10:24:26.881Z</time></trkpt><trkpt lat="40.19521708068554" lon="9.352167459630236"><ele>799.0</ele><time>2026-04-29T10:24:27.881Z</time></trkpt><trkpt lat="40.19524879772536" lon="9.352012430816623"><ele>796.25</ele><time>2026-04-29T10:24:28.881Z</time></trkpt><trkpt lat="40.195299487159915" lon="9.351863662748862"><ele>793.5</ele><time>2026-04-29T10:24:29.881Z</time></trkpt><trkpt lat="40.19536961073932" lon="9.351724246296968"><ele>790.75</ele><time>2026-04-29T10:24:30.881Z</time></trkpt><trkpt lat="40.19544971626312" lon="9.35159362192283"><ele>788.0</ele><time>2026-04-29T10:24:31.881Z</time></trkpt><trkpt lat="40.195538023277315" lon="9.351488826613213"><ele>788.0</ele><time>2026-04-29T10:24:32.881Z</time></trkpt><trkpt lat="40.195612813934304" lon="9.351382847223297"><ele>788.0</ele><time>2026-04-29T10:24:33.881Z</time></trkpt><trkpt lat="40.195694626499545" lon="9.351326480265756"><ele>788.0</ele><time>2026-04-29T10:24:34.881Z</time></trkpt><trkpt lat="40.19578182001899" lon="9.351274590721792"><ele>788.0</ele><time>2026-04-29T10:24:35.881Z</time></trkpt><trkpt lat="40.19587279928183" lon="9.35126635617182"><ele>788.0</ele><time>2026-04-29T10:24:36.881Z</time></trkpt><trkpt lat="40.195967168288185" lon="9.35129851803009"><ele>788.5</ele><time>2026-04-29T10:24:37.881Z</time></trkpt><trkpt lat="40.19606521361485" lon="9.35138027191613"><ele>789.0</ele><time>2026-04-29T10:24:38.881Z</time></trkpt><trkpt lat="40.19613472051276" lon="9.351502929382375"><ele>789.5</ele><time>2026-04-29T10:24:39.881Z</time></trkpt><trkpt lat="40.19623073716056" lon="9.351600800346965"><ele>790.0</ele><time>2026-04-29T10:24:40.881Z</time></trkpt><trkpt lat="40.19631365828579" lon="9.351714010478508"><ele>790.0</ele><time>2026-04-29T10:24:41.881Z</time></trkpt><trkpt lat="40.19638825298709" lon="9.351827053927803"><ele>790.0</ele><time>2026-04-29T10:24:42.881Z</time></trkpt><trkpt lat="40.196441026068015" lon="9.351947221399389"><ele>790.0</ele><time>2026-04-29T10:24:43.881Z</time></trkpt><trkpt lat="40.19645261495729" lon="9.352085283608252"><ele>790.0</ele><time>2026-04-29T10:24:44.881Z</time></trkpt><trkpt lat="40.19645586387622" lon="9.352243509941415"><ele>790.0</ele><time>2026-04-29T10:24:45.881Z</time></trkpt><trkpt lat="40.19646037193336" lon="9.352385030691114"><ele>787.8</ele><time>2026-04-29T10:24:46.881Z</time></trkpt><trkpt lat="40.19650345343804" lon="9.352508023945653"><ele>785.6</ele><time>2026-04-29T10:24:47.881Z</time></trkpt><trkpt lat="40.19654668172081" lon="9.352600628356122"><ele>783.4000000000001</ele><time>2026-04-29T10:24:48.881Z</time></trkpt><trkpt lat="40.19661656804427" lon="9.352679345410863"><ele>781.2</ele><time>2026-04-29T10:24:49.881Z</time></trkpt><trkpt lat="40.19669013932449" lon="9.35273183082566"><ele>779.0</ele><time>2026-04-29T10:24:50.881Z</time></trkpt><trkpt lat="40.19677056327107" lon="9.352787962812693"><ele>779.0</ele><time>2026-04-29T10:24:51.881Z</time></trkpt><trkpt lat="40.19686211123135" lon="9.352826496619075"><ele>779.0</ele><time>2026-04-29T10:24:52.881Z</time></trkpt><trkpt lat="40.19698988343153" lon="9.352833785338296"><ele>779.0</ele><time>2026-04-29T10:24:53.881Z</time></trkpt><trkpt lat="40.19716012681274" lon="9.352841943818758"><ele>779.0</ele><time>2026-04-29T10:24:54.881Z</time></trkpt><trkpt lat="40.197311704204" lon="9.352856906970983"><ele>773.3333333333334</ele><time>2026-04-29T10:24:55.881Z</time></trkpt><trkpt lat="40.19746905664394" lon="9.352887463342034"><ele>767.6666666666667</ele><time>2026-04-29T10:24:56.881Z</time></trkpt><trkpt lat="40.19762230161194" lon="9.352911557437622"><ele>762.0</ele><time>2026-04-29T10:24:57.881Z</time></trkpt><trkpt lat="40.1977787839063" lon="9.352943368352582"><ele>762.0</ele><time>2026-04-29T10:24:58.881Z</time></trkpt><trkpt lat="40.197933654731536" lon="9.352970435265867"><ele>762.0</ele><time>2026-04-29T10:24:59.881Z</time></trkpt><trkpt lat="40.19808814764604" lon="9.352997258024896"><ele>762.0</ele><time>2026-04-29T10:25:00.881Z</time></trkpt><trkpt lat="40.19823489732771" lon="9.353026963724181"><ele>763.25</ele><time>2026-04-29T10:25:01.881Z</time></trkpt><trkpt lat="40.198370347912494" lon="9.353059363537483"><ele>764.5</ele><time>2026-04-29T10:25:02.881Z</time></trkpt><trkpt lat="40.198507182511655" lon="9.353084917243981"><ele>765.75</ele><time>2026-04-29T10:25:03.881Z</time></trkpt><trkpt lat="40.198622943106145" lon="9.35310420470861"><ele>767.0</ele><time>2026-04-29T10:25:04.881Z</time></trkpt><trkpt lat="40.19871869318135" lon="9.35311834368177"><ele>767.0</ele><time>2026-04-29T10:25:05.881Z</time></trkpt><trkpt lat="40.19880106398628" lon="9.353128918690052"><ele>767.0</ele><time>2026-04-29T10:25:06.881Z</time></trkpt><trkpt lat="40.198876475877505" lon="9.353114509440235"><ele>767.0</ele><time>2026-04-29T10:25:07.881Z</time></trkpt><trkpt lat="40.19898101793039" lon="9.353085520027253"><ele>767.0</ele><time>2026-04-29T10:25:09.881Z</time></trkpt><trkpt lat="40.19907947995705" lon="9.3530300916094"><ele>767.0</ele><time>2026-04-29T10:25:11.881Z</time></trkpt><trkpt lat="40.199135753440004" lon="9.352984306864009"><ele>767.0</ele><time>2026-04-29T10:25:12.881Z</time></trkpt><trkpt lat="40.19919499793845" lon="9.352932232795299"><ele>763.0</ele><time>2026-04-29T10:25:13.881Z</time></trkpt><trkpt lat="40.1992561722816" lon="9.35286727843729"><ele>759.0</ele><time>2026-04-29T10:25:14.881Z</time></trkpt><trkpt lat="40.19931995815841" lon="9.3527897296374"><ele>755.0</ele><time>2026-04-29T10:25:15.881Z</time></trkpt><trkpt lat="40.199390183605985" lon="9.352700542957834"><ele>751.0</ele><time>2026-04-29T10:25:16.881Z</time></trkpt><trkpt lat="40.19947095079007" lon="9.352600383393465"><ele>747.0</ele><time>2026-04-29T10:25:17.881Z</time></trkpt><trkpt lat="40.19955518998686" lon="9.352503664675384"><ele>747.0</ele><time>2026-04-29T10:25:18.881Z</time></trkpt><trkpt lat="40.19963818780031" lon="9.35240306171633"><ele>747.0</ele><time>2026-04-29T10:25:19.881Z</time></trkpt><trkpt lat="40.19972649773508" lon="9.352290812482458"><ele>747.0</ele><time>2026-04-29T10:25:20.881Z</time></trkpt><trkpt lat="40.19981953539082" lon="9.352170183858021"><ele>747.0</ele><time>2026-04-29T10:25:21.881Z</time></trkpt><trkpt lat="40.19990401273729" lon="9.352076105777943"><ele>746.0</ele><time>2026-04-29T10:25:22.881Z</time></trkpt><trkpt lat="40.19997956443335" lon="9.351975179748461"><ele>745.0</ele><time>2026-04-29T10:25:23.881Z</time></trkpt><trkpt lat="40.20004440865138" lon="9.351882085141735"><ele>744.0</ele><time>2026-04-29T10:25:24.881Z</time></trkpt><trkpt lat="40.200089172963445" lon="9.351790679741919"><ele>743.0</ele><time>2026-04-29T10:25:25.881Z</time></trkpt><trkpt lat="40.20010631937096" lon="9.351660924948725"><ele>742.0</ele><time>2026-04-29T10:25:27.881Z</time></trkpt><trkpt lat="40.2000425906763" lon="9.351521933294748"><ele>742.0</ele><time>2026-04-29T10:25:29.881Z</time></trkpt><trkpt lat="40.199967711426005" lon="9.351475212738997"><ele>742.0</ele><time>2026-04-29T10:25:30.881Z</time></trkpt><trkpt lat="40.19987769390313" lon="9.351469825071144"><ele>742.0</ele><time>2026-04-29T10:25:31.881Z</time></trkpt><trkpt lat="40.199796198834385" lon="9.351521681769631"><ele>742.0</ele><time>2026-04-29T10:25:32.881Z</time></trkpt><trkpt lat="40.19973064936114" lon="9.351581739299602"><ele>742.0</ele><time>2026-04-29T10:25:33.881Z</time></trkpt><trkpt lat="40.19965335622177" lon="9.351657394346025"><ele>742.0</ele><time>2026-04-29T10:25:34.881Z</time></trkpt><trkpt lat="40.19952866593277" lon="9.351752984521655"><ele>743.25</ele><time>2026-04-29T10:25:35.881Z</time></trkpt><trkpt lat="40.199395865718856" lon="9.351901842109445"><ele>744.5</ele><time>2026-04-29T10:25:36.881Z</time></trkpt><trkpt lat="40.19934186030691" lon="9.352059750846017"><ele>745.75</ele><time>2026-04-29T10:25:38.881Z</time></trkpt><trkpt lat="40.199239266989544" lon="9.352165146552679"><ele>747.0</ele><time>2026-04-29T10:25:39.881Z</time></trkpt><trkpt lat="40.19913750420224" lon="9.352249596925313"><ele>747.0</ele><time>2026-04-29T10:25:40.881Z</time></trkpt><trkpt lat="40.19903025874663" lon="9.35228894703641"><ele>747.0</ele><time>2026-04-29T10:25:41.881Z</time></trkpt><trkpt lat="40.198927042622216" lon="9.352302122529588"><ele>747.0</ele><time>2026-04-29T10:25:42.881Z</time></trkpt><trkpt lat="40.19882154131318" lon="9.352281810347604"><ele>747.0</ele><time>2026-04-29T10:25:43.881Z</time></trkpt><trkpt lat="40.198732776586155" lon="9.352189678093831"><ele>747.0</ele><time>2026-04-29T10:25:44.881Z</time></trkpt><trkpt lat="40.198618539784036" lon="9.352131255072123"><ele>745.75</ele><time>2026-04-29T10:25:45.881Z</time></trkpt><trkpt lat="40.198500238436566" lon="9.352042873973652"><ele>744.5</ele><time>2026-04-29T10:25:46.881Z</time></trkpt><trkpt lat="40.19837257175818" lon="9.351951706078909"><ele>743.25</ele><time>2026-04-29T10:25:47.881Z</time></trkpt><trkpt lat="40.1982441881872" lon="9.351858495072493"><ele>742.0</ele><time>2026-04-29T10:25:48.881Z</time></trkpt><trkpt lat="40.19811984333666" lon="9.351772735385978"><ele>742.0</ele><time>2026-04-29T10:25:49.881Z</time></trkpt><trkpt lat="40.19799744523401" lon="9.351685793074012"><ele>742.0</ele><time>2026-04-29T10:25:50.881Z</time></trkpt><trkpt lat="40.19787731338205" lon="9.35159923472564"><ele>742.0</ele><time>2026-04-29T10:25:51.881Z</time></trkpt><trkpt lat="40.19776208652084" lon="9.351515643940889"><ele>742.0</ele><time>2026-04-29T10:25:52.881Z</time></trkpt><trkpt lat="40.19765317168085" lon="9.351433191588711"><ele>739.8</ele><time>2026-04-29T10:25:53.881Z</time></trkpt><trkpt lat="40.19757965485594" lon="9.35133613401291"><ele>737.6</ele><time>2026-04-29T10:25:54.882Z</time></trkpt><trkpt lat="40.19753131848115" lon="9.351236733319874"><ele>735.4</ele><time>2026-04-29T10:25:55.882Z</time></trkpt><trkpt lat="40.19751316758951" lon="9.351125181275698"><ele>733.1999999999999</ele><time>2026-04-29T10:25:56.882Z</time></trkpt><trkpt lat="40.1975147086166" lon="9.351012166328497"><ele>731.0</ele><time>2026-04-29T10:25:57.882Z</time></trkpt><trkpt lat="40.19755607681478" lon="9.350917399456698"><ele>731.0</ele><time>2026-04-29T10:25:58.882Z</time></trkpt><trkpt lat="40.19758075747847" lon="9.350799631583223"><ele>731.0</ele><time>2026-04-29T10:25:59.88Z</time></trkpt><trkpt lat="40.19768300300604" lon="9.350778599616973"><ele>731.0</ele><time>2026-04-29T10:26:00.88Z</time></trkpt><trkpt lat="40.197821028890104" lon="9.35074828957164"><ele>731.0</ele><time>2026-04-29T10:26:01.88Z</time></trkpt><trkpt lat="40.19790731272986" lon="9.350784054664654"><ele>731.0</ele><time>2026-04-29T10:26:02.88Z</time></trkpt><trkpt lat="40.19799096271833" lon="9.350870590362646"><ele>731.0</ele><time>2026-04-29T10:26:03.88Z</time></trkpt><trkpt lat="40.19807872724094" lon="9.350958182628968"><ele>731.0</ele><time>2026-04-29T10:26:04.88Z</time></trkpt><trkpt lat="40.198174979002495" lon="9.351013202424774"><ele>731.0</ele><time>2026-04-29T10:26:05.88Z</time></trkpt><trkpt lat="40.19827126584493" lon="9.35107038355296"><ele>731.0</ele><time>2026-04-29T10:26:06.88Z</time></trkpt><trkpt lat="40.19838378497747" lon="9.351112328902532"><ele>731.0</ele><time>2026-04-29T10:26:07.88Z</time></trkpt><trkpt lat="40.19850315115682" lon="9.35111373351598"><ele>727.5</ele><time>2026-04-29T10:26:08.879Z</time></trkpt><trkpt lat="40.19862534879313" lon="9.351099892151218"><ele>724.0</ele><time>2026-04-29T10:26:09.88Z</time></trkpt><trkpt lat="40.19875915020658" lon="9.351075284360363"><ele>720.5</ele><time>2026-04-29T10:26:10.88Z</time></trkpt><trkpt lat="40.19887323724232" lon="9.35100833181075"><ele>717.0</ele><time>2026-04-29T10:26:11.88Z</time></trkpt><trkpt lat="40.19897037015479" lon="9.350948698671704"><ele>717.5</ele><time>2026-04-29T10:26:12.88Z</time></trkpt><trkpt lat="40.19905729856898" lon="9.35086667332242"><ele>718.0</ele><time>2026-04-29T10:26:13.88Z</time></trkpt><trkpt lat="40.1991432405535" lon="9.350762870716926"><ele>718.5</ele><time>2026-04-29T10:26:14.88Z</time></trkpt><trkpt lat="40.19922700213933" lon="9.350637366887712"><ele>719.0</ele><time>2026-04-29T10:26:15.88Z</time></trkpt><trkpt lat="40.19932196169069" lon="9.350474997502586"><ele>715.25</ele><time>2026-04-29T10:26:16.88Z</time></trkpt><trkpt lat="40.19941537026871" lon="9.35031556402403"><ele>711.5</ele><time>2026-04-29T10:26:17.88Z</time></trkpt><trkpt lat="40.199506629375065" lon="9.350163492547011"><ele>707.75</ele><time>2026-04-29T10:26:18.88Z</time></trkpt><trkpt lat="40.19959935385878" lon="9.35001314251535"><ele>704.0</ele><time>2026-04-29T10:26:19.88Z</time></trkpt><trkpt lat="40.199683903089685" lon="9.349866161475367"><ele>704.0</ele><time>2026-04-29T10:26:20.88Z</time></trkpt><trkpt lat="40.199770788096785" lon="9.349714193387754"><ele>704.0</ele><time>2026-04-29T10:26:21.88Z</time></trkpt><trkpt lat="40.1998828894158" lon="9.34958788540213"><ele>704.0</ele><time>2026-04-29T10:26:22.88Z</time></trkpt><trkpt lat="40.19997486429064" lon="9.349454352219848"><ele>704.0</ele><time>2026-04-29T10:26:23.88Z</time></trkpt><trkpt lat="40.200070748130145" lon="9.349333627205091"><ele>702.25</ele><time>2026-04-29T10:26:24.88Z</time></trkpt><trkpt lat="40.200156234708444" lon="9.349190558142684"><ele>700.5</ele><time>2026-04-29T10:26:25.88Z</time></trkpt><trkpt lat="40.20022942408315" lon="9.349029976886943"><ele>698.75</ele><time>2026-04-29T10:26:26.88Z</time></trkpt><trkpt lat="40.20029362578234" lon="9.348865987185984"><ele>697.0</ele><time>2026-04-29T10:26:27.88Z</time></trkpt><trkpt lat="40.20034273859755" lon="9.348696214576075"><ele>693.5</ele><time>2026-04-29T10:26:28.88Z</time></trkpt><trkpt lat="40.20038734113646" lon="9.348516661504844"><ele>690.0</ele><time>2026-04-29T10:26:29.88Z</time></trkpt><trkpt lat="40.20043029412838" lon="9.348348379896978"><ele>686.5</ele><time>2026-04-29T10:26:30.88Z</time></trkpt><trkpt lat="40.200482197223" lon="9.348182675623205"><ele>683.0</ele><time>2026-04-29T10:26:31.88Z</time></trkpt><trkpt lat="40.20054366350133" lon="9.348014096151655"><ele>684.0</ele><time>2026-04-29T10:26:32.88Z</time></trkpt><trkpt lat="40.20061806505344" lon="9.347859621828098"><ele>685.0</ele><time>2026-04-29T10:26:33.88Z</time></trkpt><trkpt lat="40.20068956115603" lon="9.347716435588064"><ele>686.0</ele><time>2026-04-29T10:26:34.88Z</time></trkpt><trkpt lat="40.200760179405506" lon="9.347571334624982"><ele>687.0</ele><time>2026-04-29T10:26:35.88Z</time></trkpt><trkpt lat="40.20081912709782" lon="9.347445885445453"><ele>687.0</ele><time>2026-04-29T10:26:36.88Z</time></trkpt><trkpt lat="40.20088033836353" lon="9.34733458600673"><ele>687.0</ele><time>2026-04-29T10:26:37.88Z</time></trkpt><trkpt lat="40.20094371146294" lon="9.347215630041063"><ele>687.0</ele><time>2026-04-29T10:26:38.88Z</time></trkpt><trkpt lat="40.20101145948548" lon="9.347138551995718"><ele>687.0</ele><time>2026-04-29T10:26:39.88Z</time></trkpt><trkpt lat="40.20108854062944" lon="9.34709575152287"><ele>687.0</ele><time>2026-04-29T10:26:40.88Z</time></trkpt><trkpt lat="40.20117450381936" lon="9.34708195096833"><ele>687.2</ele><time>2026-04-29T10:26:41.88Z</time></trkpt><trkpt lat="40.20126418678753" lon="9.347092867000237"><ele>687.4000000000001</ele><time>2026-04-29T10:26:42.88Z</time></trkpt><trkpt lat="40.201361983158485" lon="9.347128585196243"><ele>687.5999999999999</ele><time>2026-04-29T10:26:43.88Z</time></trkpt><trkpt lat="40.20146044865034" lon="9.347174674794498"><ele>687.8</ele><time>2026-04-29T10:26:44.88Z</time></trkpt><trkpt lat="40.20158009344254" lon="9.347222511449125"><ele>688.0</ele><time>2026-04-29T10:26:45.88Z</time></trkpt><trkpt lat="40.20169366553788" lon="9.347253824165128"><ele>688.0</ele><time>2026-04-29T10:26:46.88Z</time></trkpt><trkpt lat="40.20181869945449" lon="9.347270045991145"><ele>688.0</ele><time>2026-04-29T10:26:47.88Z</time></trkpt><trkpt lat="40.201953168221216" lon="9.347299047388342"><ele>688.0</ele><time>2026-04-29T10:26:48.88Z</time></trkpt><trkpt lat="40.202081764088824" lon="9.347296112722134"><ele>688.0</ele><time>2026-04-29T10:26:49.88Z</time></trkpt><trkpt lat="40.20220012036991" lon="9.347297784020293"><ele>688.0</ele><time>2026-04-29T10:26:50.88Z</time></trkpt><trkpt lat="40.202316140029694" lon="9.347298628871537"><ele>688.0</ele><time>2026-04-29T10:26:51.88Z</time></trkpt><trkpt lat="40.20242850668173" lon="9.347330515156301"><ele>688.0</ele><time>2026-04-29T10:26:52.88Z</time></trkpt><trkpt lat="40.20253947688226" lon="9.347385502161304"><ele>688.0</ele><time>2026-04-29T10:26:53.88Z</time></trkpt><trkpt lat="40.202660410734666" lon="9.34744953521296"><ele>684.5</ele><time>2026-04-29T10:26:54.88Z</time></trkpt><trkpt lat="40.202784711334196" lon="9.347545842738162"><ele>681.0</ele><time>2026-04-29T10:26:55.88Z</time></trkpt><trkpt lat="40.2029104421443" lon="9.347642398214518"><ele>677.5</ele><time>2026-04-29T10:26:56.88Z</time></trkpt><trkpt lat="40.20303128541234" lon="9.347742042187637"><ele>674.0</ele><time>2026-04-29T10:26:57.88Z</time></trkpt><trkpt lat="40.20314886255991" lon="9.347825657446748"><ele>669.5</ele><time>2026-04-29T10:26:58.88Z</time></trkpt><trkpt lat="40.203268147449094" lon="9.347888635322382"><ele>665.0</ele><time>2026-04-29T10:26:59.88Z</time></trkpt><trkpt lat="40.203386935422785" lon="9.347933447294535"><ele>660.5</ele><time>2026-04-29T10:27:00.88Z</time></trkpt><trkpt lat="40.2035071696378" lon="9.347970797055195"><ele>656.0</ele><time>2026-04-29T10:27:01.88Z</time></trkpt><trkpt lat="40.20362299875104" lon="9.34801792162899"><ele>656.75</ele><time>2026-04-29T10:27:02.88Z</time></trkpt><trkpt lat="40.20373187884673" lon="9.348087711102249"><ele>657.5</ele><time>2026-04-29T10:27:03.88Z</time></trkpt><trkpt lat="40.20384768716073" lon="9.348172392442793"><ele>658.25</ele><time>2026-04-29T10:27:04.88Z</time></trkpt><trkpt lat="40.20395632603824" lon="9.348217985464881"><ele>659.0</ele><time>2026-04-29T10:27:05.88Z</time></trkpt><trkpt lat="40.204055377091585" lon="9.34825143407166"><ele>659.0</ele><time>2026-04-29T10:27:06.88Z</time></trkpt><trkpt lat="40.20416706406871" lon="9.348278013304363"><ele>659.0</ele><time>2026-04-29T10:27:07.88Z</time></trkpt><trkpt lat="40.20427263493225" lon="9.348298909875735"><ele>659.0</ele><time>2026-04-29T10:27:08.88Z</time></trkpt><trkpt lat="40.20436287196279" lon="9.348322097596897"><ele>659.0</ele><time>2026-04-29T10:27:09.88Z</time></trkpt><trkpt lat="40.204429995914914" lon="9.34836241040677"><ele>659.0</ele><time>2026-04-29T10:27:10.88Z</time></trkpt><trkpt lat="40.204496575058144" lon="9.348401355380828"><ele>659.0</ele><time>2026-04-29T10:27:11.88Z</time></trkpt><trkpt lat="40.204553197885225" lon="9.348465525664112"><ele>659.0</ele><time>2026-04-29T10:27:12.88Z</time></trkpt><trkpt lat="40.20463760085822" lon="9.348515515813885"><ele>659.0</ele><time>2026-04-29T10:27:13.88Z</time></trkpt><trkpt lat="40.204736018073184" lon="9.348580472911685"><ele>659.0</ele><time>2026-04-29T10:27:14.88Z</time></trkpt><trkpt lat="40.204857235349245" lon="9.348641634038724"><ele>659.0</ele><time>2026-04-29T10:27:15.88Z</time></trkpt><trkpt lat="40.204974380131844" lon="9.348677832468926"><ele>656.6</ele><time>2026-04-29T10:27:16.88Z</time></trkpt><trkpt lat="40.205089717341465" lon="9.348696956763018"><ele>654.2</ele><time>2026-04-29T10:27:17.88Z</time></trkpt><trkpt lat="40.20521011422815" lon="9.34869242554147"><ele>651.8000000000001</ele><time>2026-04-29T10:27:18.88Z</time></trkpt><trkpt lat="40.20530707887835" lon="9.348672662110449"><ele>649.4000000000001</ele><time>2026-04-29T10:27:19.88Z</time></trkpt><trkpt lat="40.205379459143074" lon="9.348624522165613"><ele>647.0</ele><time>2026-04-29T10:27:20.88Z</time></trkpt><trkpt lat="40.20546359706931" lon="9.348544897338673"><ele>647.0</ele><time>2026-04-29T10:27:22.88Z</time></trkpt><trkpt lat="40.20550947822303" lon="9.348471282957775"><ele>647.0</ele><time>2026-04-29T10:27:42.881Z</time></trkpt><trkpt lat="40.205575297713274" lon="9.34846838750636"><ele>647.0</ele><time>2026-04-29T10:27:43.881Z</time></trkpt><trkpt lat="40.2056974571762" lon="9.348465435111292"><ele>647.0</ele><time>2026-04-29T10:27:45.881Z</time></trkpt><trkpt lat="40.20576380394854" lon="9.348520523098651"><ele>647.0</ele><time>2026-04-29T10:27:46.881Z</time></trkpt><trkpt lat="40.20583128377105" lon="9.348582012719863"><ele>647.0</ele><time>2026-04-29T10:27:47.881Z</time></trkpt><trkpt lat="40.20589790815363" lon="9.348648872522954"><ele>648.0</ele><time>2026-04-29T10:27:48.881Z</time></trkpt><trkpt lat="40.20596410892076" lon="9.348716243459391"><ele>649.0</ele><time>2026-04-29T10:27:49.881Z</time></trkpt><trkpt lat="40.20603458698254" lon="9.34879716841955"><ele>650.0</ele><time>2026-04-29T10:27:50.881Z</time></trkpt><trkpt lat="40.20610755594203" lon="9.348877691883889"><ele>651.0</ele><time>2026-04-29T10:27:51.881Z</time></trkpt><trkpt lat="40.20616320193032" lon="9.348963100405454"><ele>652.0</ele><time>2026-04-29T10:27:52.881Z</time></trkpt><trkpt lat="40.20622053264989" lon="9.349036503018743"><ele>653.0</ele><time>2026-04-29T10:27:53.881Z</time></trkpt><trkpt lat="40.20627785970887" lon="9.349092303019813"><ele>653.0</ele><time>2026-04-29T10:27:54.881Z</time></trkpt><trkpt lat="40.206309397441814" lon="9.349182497859031"><ele>653.0</ele><time>2026-04-29T10:27:56.881Z</time></trkpt><trkpt lat="40.206371798283605" lon="9.349207209057752"><ele>653.0</ele><time>2026-04-29T10:28:06.878Z</time></trkpt><trkpt lat="40.206432121050426" lon="9.349248986313686"><ele>653.0</ele><time>2026-04-29T10:28:09.879Z</time></trkpt><trkpt lat="40.20650053564849" lon="9.349324596571055"><ele>653.0</ele><time>2026-04-29T10:28:12.879Z</time></trkpt><trkpt lat="40.20655157543238" lon="9.34942070846686"><ele>653.0</ele><time>2026-04-29T10:28:14.879Z</time></trkpt><trkpt lat="40.20660215024673" lon="9.34949327914823"><ele>652.6666666666666</ele><time>2026-04-29T10:28:18.879Z</time></trkpt><trkpt lat="40.20660185466215" lon="9.34962601340244"><ele>652.3333333333333</ele><time>2026-04-29T10:28:20.879Z</time></trkpt><trkpt lat="40.206589784889225" lon="9.349751450498044"><ele>652.0</ele><time>2026-04-29T10:28:22.879Z</time></trkpt><trkpt lat="40.20658306791858" lon="9.349859174072371"><ele>651.6666666666666</ele><time>2026-04-29T10:28:24.879Z</time></trkpt><trkpt lat="40.206571036194994" lon="9.349940700683508"><ele>651.3333333333334</ele><time>2026-04-29T10:28:25.879Z</time></trkpt><trkpt lat="40.20653919524744" lon="9.350021288571725"><ele>651.0</ele><time>2026-04-29T10:28:26.879Z</time></trkpt><trkpt lat="40.20648256517019" lon="9.350151866434818"><ele>651.0</ele><time>2026-04-29T10:28:28.879Z</time></trkpt><trkpt lat="40.206453592377805" lon="9.350240871253407"><ele>651.0</ele><time>2026-04-29T10:28:30.879Z</time></trkpt><trkpt lat="40.20644258923993" lon="9.350323237106597"><ele>651.0</ele><time>2026-04-29T10:28:32.879Z</time></trkpt><trkpt lat="40.20645423717637" lon="9.350456798402638"><ele>651.0</ele><time>2026-04-29T10:28:36.879Z</time></trkpt><trkpt lat="40.206393041884844" lon="9.350477201183311"><ele>651.0</ele><time>2026-04-29T10:28:46.879Z</time></trkpt><trkpt lat="40.20640444230642" lon="9.350603963573539"><ele>651.0</ele><time>2026-04-29T10:28:51.879Z</time></trkpt><trkpt lat="40.20632387701536" lon="9.35065646569259"><ele>648.8</ele><time>2026-04-29T10:28:56.879Z</time></trkpt><trkpt lat="40.206405111837185" lon="9.350624588045838"><ele>646.5999999999999</ele><time>2026-04-29T10:29:01.879Z</time></trkpt><trkpt lat="40.20646222472278" lon="9.350561610534728"><ele>644.4</ele><time>2026-04-29T10:29:03.879Z</time></trkpt><trkpt lat="40.20654768896782" lon="9.350471617620876"><ele>642.2</ele><time>2026-04-29T10:29:05.879Z</time></trkpt><trkpt lat="40.206595079802824" lon="9.350406165931046"><ele>640.0</ele><time>2026-04-29T10:29:06.879Z</time></trkpt><trkpt lat="40.20643972720608" lon="9.350592560818132"><ele>639.3333333333334</ele><time>2026-04-29T10:29:07.879Z</time></trkpt><trkpt lat="40.20649755908463" lon="9.350530223630592"><ele>638.6666666666667</ele><time>2026-04-29T10:29:09.879Z</time></trkpt><trkpt lat="40.206552369765944" lon="9.350479404987844"><ele>638.0</ele><time>2026-04-29T10:29:11.879Z</time></trkpt><trkpt lat="40.20659716933574" lon="9.35041004669836"><ele>637.3333333333334</ele><time>2026-04-29T10:29:15.879Z</time></trkpt><trkpt lat="40.20668188802694" lon="9.350337216543728"><ele>636.6666666666666</ele><time>2026-04-29T10:29:20.88Z</time></trkpt><trkpt lat="40.206767435146105" lon="9.350252194413303"><ele>636.0</ele><time>2026-04-29T10:29:22.88Z</time></trkpt><trkpt lat="40.2068307092253" lon="9.350189307918091"><ele>636.0</ele><time>2026-04-29T10:29:24.88Z</time></trkpt><trkpt lat="40.20689130514868" lon="9.350120410543305"><ele>636.0</ele><time>2026-04-29T10:29:26.88Z</time></trkpt><trkpt lat="40.20697399798692" lon="9.350168858361233"><ele>636.0</ele><time>2026-04-29T10:29:29.88Z</time></trkpt><trkpt lat="40.207032352258544" lon="9.350239300168115"><ele>636.0</ele><time>2026-04-29T10:29:32.88Z</time></trkpt><trkpt lat="40.20709422612079" lon="9.35030862000235"><ele>636.0</ele><time>2026-04-29T10:29:34.88Z</time></trkpt><trkpt lat="40.20716302791112" lon="9.35032885536368"><ele>636.0</ele><time>2026-04-29T10:29:36.88Z</time></trkpt><trkpt lat="40.20711171952138" lon="9.350270505580557"><ele>636.0</ele><time>2026-04-29T10:30:28.878Z</time></trkpt><trkpt lat="40.20704107873038" lon="9.350355216741002"><ele>636.0</ele><time>2026-04-29T10:30:29.878Z</time></trkpt><trkpt lat="40.206946591124165" lon="9.350471398511576"><ele>636.0</ele><time>2026-04-29T10:30:31.878Z</time></trkpt><trkpt lat="40.206892676746946" lon="9.350541631732582"><ele>636.0</ele><time>2026-04-29T10:30:32.878Z</time></trkpt><trkpt lat="40.20684681485694" lon="9.35059994247367"><ele>636.0</ele><time>2026-04-29T10:30:33.878Z</time></trkpt><trkpt lat="40.20679994225503" lon="9.350679428746053"><ele>636.0</ele><time>2026-04-29T10:30:34.878Z</time></trkpt><trkpt lat="40.2067551342246" lon="9.350772778231017"><ele>634.0</ele><time>2026-04-29T10:30:35.878Z</time></trkpt><trkpt lat="40.20671430955064" lon="9.350868553585464"><ele>632.0</ele><time>2026-04-29T10:30:36.878Z</time></trkpt><trkpt lat="40.20667971334103" lon="9.350987755324217"><ele>630.0</ele><time>2026-04-29T10:30:37.878Z</time></trkpt><trkpt lat="40.206663575426376" lon="9.351082771462943"><ele>628.0</ele><time>2026-04-29T10:30:38.878Z</time></trkpt><trkpt lat="40.20663496795958" lon="9.351189174179455"><ele>626.0</ele><time>2026-04-29T10:30:39.878Z</time></trkpt><trkpt lat="40.20660794898902" lon="9.351294019282468"><ele>624.0</ele><time>2026-04-29T10:30:40.878Z</time></trkpt><trkpt lat="40.206555920648974" lon="9.351382560556372"><ele>624.1666666666666</ele><time>2026-04-29T10:30:41.878Z</time></trkpt><trkpt lat="40.20649791840122" lon="9.351451743463043"><ele>624.3333333333334</ele><time>2026-04-29T10:30:42.878Z</time></trkpt><trkpt lat="40.206423830701326" lon="9.351493379907618"><ele>624.5</ele><time>2026-04-29T10:30:43.878Z</time></trkpt><trkpt lat="40.206342736497454" lon="9.351522123425239"><ele>624.6666666666667</ele><time>2026-04-29T10:30:44.878Z</time></trkpt><trkpt lat="40.20625854951023" lon="9.35153334241625"><ele>624.8333333333334</ele><time>2026-04-29T10:30:45.878Z</time></trkpt><trkpt lat="40.20617769935271" lon="9.351560580464087"><ele>625.0</ele><time>2026-04-29T10:30:46.878Z</time></trkpt><trkpt lat="40.20609998426019" lon="9.3516003984514"><ele>625.0</ele><time>2026-04-29T10:30:47.878Z</time></trkpt><trkpt lat="40.206037888560864" lon="9.351642994693574"><ele>625.0</ele><time>2026-04-29T10:30:48.878Z</time></trkpt><trkpt lat="40.2059886214539" lon="9.35170062280261"><ele>625.0</ele><time>2026-04-29T10:30:49.878Z</time></trkpt><trkpt lat="40.20594500257173" lon="9.351799133598208"><ele>625.0</ele><time>2026-04-29T10:30:51.878Z</time></trkpt><trkpt lat="40.205952626609935" lon="9.35189673084897"><ele>625.0</ele><time>2026-04-29T10:30:53.878Z</time></trkpt><trkpt lat="40.205901960355604" lon="9.351988332711347"><ele>625.0</ele><time>2026-04-29T10:30:55.878Z</time></trkpt><trkpt lat="40.20583299246901" lon="9.352044440222137"><ele>625.0</ele><time>2026-04-29T10:30:56.878Z</time></trkpt><trkpt lat="40.20577263951802" lon="9.35211186524756"><ele>625.0</ele><time>2026-04-29T10:30:57.878Z</time></trkpt><trkpt lat="40.20571521009542" lon="9.352175222807139"><ele>625.0</ele><time>2026-04-29T10:30:58.878Z</time></trkpt><trkpt lat="40.205652965716695" lon="9.352242504536125"><ele>625.0</ele><time>2026-04-29T10:30:59.878Z</time></trkpt><trkpt lat="40.205593755161566" lon="9.352307796216294"><ele>625.0</ele><time>2026-04-29T10:31:00.878Z</time></trkpt><trkpt lat="40.2055336066213" lon="9.352368603289333"><ele>625.0</ele><time>2026-04-29T10:31:01.878Z</time></trkpt><trkpt lat="40.20547956635296" lon="9.352422961753467"><ele>623.6666666666667</ele><time>2026-04-29T10:31:02.878Z</time></trkpt><trkpt lat="40.20542398500422" lon="9.352484436868462"><ele>622.3333333333334</ele><time>2026-04-29T10:31:03.878Z</time></trkpt><trkpt lat="40.205359184414235" lon="9.352538701724132"><ele>621.0</ele><time>2026-04-29T10:31:04.878Z</time></trkpt><trkpt lat="40.205304159406595" lon="9.352591065315025"><ele>619.6666666666666</ele><time>2026-04-29T10:31:05.878Z</time></trkpt><trkpt lat="40.20521967916449" lon="9.352688437487306"><ele>618.3333333333333</ele><time>2026-04-29T10:31:07.878Z</time></trkpt><trkpt lat="40.20518998042921" lon="9.352766912585992"><ele>617.0</ele><time>2026-04-29T10:31:08.878Z</time></trkpt><trkpt lat="40.20519993958998" lon="9.352939844626476"><ele>617.0</ele><time>2026-04-29T10:31:10.878Z</time></trkpt><trkpt lat="40.20520057070746" lon="9.353035845801667"><ele>617.0</ele><time>2026-04-29T10:31:11.878Z</time></trkpt><trkpt lat="40.20522029622093" lon="9.353131379991328"><ele>617.0</ele><time>2026-04-29T10:31:12.878Z</time></trkpt><trkpt lat="40.205238419469964" lon="9.353233087698259"><ele>617.0</ele><time>2026-04-29T10:31:13.878Z</time></trkpt><trkpt lat="40.20524486017893" lon="9.353339019601695"><ele>617.0</ele><time>2026-04-29T10:31:14.878Z</time></trkpt><trkpt lat="40.205277813829156" lon="9.353444843929681"><ele>617.0</ele><time>2026-04-29T10:31:15.878Z</time></trkpt><trkpt lat="40.20528015591843" lon="9.353553256929136"><ele>615.8333333333333</ele><time>2026-04-29T10:31:16.878Z</time></trkpt><trkpt lat="40.20529648489057" lon="9.353663606572729"><ele>614.6666666666666</ele><time>2026-04-29T10:31:17.878Z</time></trkpt><trkpt lat="40.20531232331765" lon="9.353759040937259"><ele>613.5</ele><time>2026-04-29T10:31:18.878Z</time></trkpt><trkpt lat="40.20533711381222" lon="9.353835963581583"><ele>612.3333333333334</ele><time>2026-04-29T10:31:19.878Z</time></trkpt><trkpt lat="40.20535126296602" lon="9.353934545219287"><ele>611.1666666666667</ele><time>2026-04-29T10:31:21.878Z</time></trkpt><trkpt lat="40.2053653713608" lon="9.35402679051891"><ele>610.0</ele><time>2026-04-29T10:31:24.878Z</time></trkpt><trkpt lat="40.205383092180334" lon="9.35412817021226"><ele>609.0</ele><time>2026-04-29T10:31:26.878Z</time></trkpt><trkpt lat="40.20540361856023" lon="9.354266628128213"><ele>608.0</ele><time>2026-04-29T10:31:28.878Z</time></trkpt><trkpt lat="40.2054068515116" lon="9.354384830071057"><ele>607.0</ele><time>2026-04-29T10:31:30.878Z</time></trkpt><trkpt lat="40.20538011957799" lon="9.354529393528647"><ele>606.0</ele><time>2026-04-29T10:31:32.878Z</time></trkpt><trkpt lat="40.20535251670714" lon="9.354628057034004"><ele>605.0</ele><time>2026-04-29T10:31:34.878Z</time></trkpt><trkpt lat="40.20533230750592" lon="9.354724064160088"><ele>603.8</ele><time>2026-04-29T10:31:38.878Z</time></trkpt><trkpt lat="40.205293638958345" lon="9.3548490809078"><ele>602.6</ele><time>2026-04-29T10:31:41.878Z</time></trkpt><trkpt lat="40.20524344086984" lon="9.354967127197405"><ele>601.4</ele><time>2026-04-29T10:31:43.878Z</time></trkpt><trkpt lat="40.205233700992736" lon="9.355063521591681"><ele>600.2</ele><time>2026-04-29T10:31:44.878Z</time></trkpt><trkpt lat="40.20519570163848" lon="9.355201058310254"><ele>599.0</ele><time>2026-04-29T10:31:46.878Z</time></trkpt><trkpt lat="40.2051715080155" lon="9.355320606519244"><ele>599.0</ele><time>2026-04-29T10:31:48.878Z</time></trkpt><trkpt lat="40.205152015068755" lon="9.355409234730068"><ele>599.0</ele><time>2026-04-29T10:31:51.878Z</time></trkpt><trkpt lat="40.20514189846298" lon="9.355510378164135"><ele>599.0</ele><time>2026-04-29T10:31:53.879Z</time></trkpt><trkpt lat="40.20512902473468" lon="9.355670262637862"><ele>599.0</ele><time>2026-04-29T10:31:55.879Z</time></trkpt><trkpt lat="40.20512149828783" lon="9.355763895002303"><ele>599.0</ele><time>2026-04-29T10:31:56.879Z</time></trkpt><trkpt lat="40.20511968844971" lon="9.355847626261147"><ele>599.0</ele><time>2026-04-29T10:31:57.879Z</time></trkpt><trkpt lat="40.20512691993842" lon="9.355937682100226"><ele>599.0</ele><time>2026-04-29T10:31:58.879Z</time></trkpt><trkpt lat="40.205140365999235" lon="9.356019378910519"><ele>599.0</ele><time>2026-04-29T10:31:59.879Z</time></trkpt><trkpt lat="40.205144771960796" lon="9.356120371067762"><ele>599.0</ele><time>2026-04-29T10:32:00.879Z</time></trkpt><trkpt lat="40.20514552164117" lon="9.35622822310296"><ele>599.0</ele><time>2026-04-29T10:32:01.879Z</time></trkpt><trkpt lat="40.20515030701205" lon="9.356356419148078"><ele>599.0</ele><time>2026-04-29T10:32:02.879Z</time></trkpt><trkpt lat="40.20514665092445" lon="9.35647651771335"><ele>599.0</ele><time>2026-04-29T10:32:03.879Z</time></trkpt><trkpt lat="40.20513782480932" lon="9.356583703357812"><ele>598.8</ele><time>2026-04-29T10:32:04.879Z</time></trkpt><trkpt lat="40.20514233029457" lon="9.356701313542953"><ele>598.5999999999999</ele><time>2026-04-29T10:32:05.879Z</time></trkpt><trkpt lat="40.205144203219646" lon="9.356811412834356"><ele>598.4</ele><time>2026-04-29T10:32:06.879Z</time></trkpt><trkpt lat="40.20514308681717" lon="9.356942067732025"><ele>598.1999999999999</ele><time>2026-04-29T10:32:07.879Z</time></trkpt><trkpt lat="40.20515190265395" lon="9.357080909364827"><ele>598.0</ele><time>2026-04-29T10:32:08.879Z</time></trkpt><trkpt lat="40.20515526848418" lon="9.357218983544007"><ele>598.0</ele><time>2026-04-29T10:32:09.879Z</time></trkpt><trkpt lat="40.20516193723127" lon="9.357349333976474"><ele>598.0</ele><time>2026-04-29T10:32:10.879Z</time></trkpt><trkpt lat="40.20516172286812" lon="9.357465629402645"><ele>598.0</ele><time>2026-04-29T10:32:11.879Z</time></trkpt><trkpt lat="40.20515381681191" lon="9.357554669941385"><ele>598.0</ele><time>2026-04-29T10:32:12.879Z</time></trkpt><trkpt lat="40.205175243635956" lon="9.35740372945895"><ele>598.0</ele><time>2026-04-29T10:32:16.879Z</time></trkpt><trkpt lat="40.20516186022769" lon="9.357252479278024"><ele>599.0</ele><time>2026-04-29T10:32:17.878Z</time></trkpt><trkpt lat="40.20522792551792" lon="9.358275864296738"><ele>599.0</ele><time>2026-04-29T10:32:18.877Z</time></trkpt><trkpt lat="40.20523090550965" lon="9.358377842728634"><ele>599.0</ele><time>2026-04-29T10:32:19.877Z</time></trkpt><trkpt lat="40.20523626794313" lon="9.358489403388226"><ele>599.0</ele><time>2026-04-29T10:32:20.877Z</time></trkpt><trkpt lat="40.205229217674606" lon="9.358588701709566"><ele>599.0</ele><time>2026-04-29T10:32:21.877Z</time></trkpt><trkpt lat="40.2052359647472" lon="9.358684868602044"><ele>599.0</ele><time>2026-04-29T10:32:22.877Z</time></trkpt><trkpt lat="40.205242029326214" lon="9.35881377847212"><ele>599.0</ele><time>2026-04-29T10:32:24.877Z</time></trkpt><trkpt lat="40.20523754813856" lon="9.358896883676017"><ele>599.0</ele><time>2026-04-29T10:32:27.878Z</time></trkpt><trkpt lat="40.20517007459397" lon="9.358963187145523"><ele>599.0</ele><time>2026-04-29T10:32:33.877Z</time></trkpt><trkpt lat="40.20507130096691" lon="9.358885309932564"><ele>599.0</ele><time>2026-04-29T10:32:35.877Z</time></trkpt><trkpt lat="40.20494032974849" lon="9.358859460661796"><ele>599.0</ele><time>2026-04-29T10:32:37.877Z</time></trkpt><trkpt lat="40.20487056279998" lon="9.358843536806626"><ele>599.0</ele><time>2026-04-29T10:32:38.877Z</time></trkpt><trkpt lat="40.20477826172979" lon="9.358823636939077"><ele>602.0</ele><time>2026-04-29T10:32:39.877Z</time></trkpt><trkpt lat="40.20468243738545" lon="9.358802980704265"><ele>605.0</ele><time>2026-04-29T10:32:40.877Z</time></trkpt><trkpt lat="40.20459146282445" lon="9.358789436019505"><ele>608.0</ele><time>2026-04-29T10:32:41.877Z</time></trkpt><trkpt lat="40.20448279433183" lon="9.358788649743234"><ele>611.0</ele><time>2026-04-29T10:32:42.877Z</time></trkpt><trkpt lat="40.20438653661078" lon="9.358773892111664"><ele>614.0</ele><time>2026-04-29T10:32:43.877Z</time></trkpt><trkpt lat="40.204288327383765" lon="9.358760475218435"><ele>614.0</ele><time>2026-04-29T10:32:44.877Z</time></trkpt><trkpt lat="40.204202639058806" lon="9.358741177240502"><ele>614.0</ele><time>2026-04-29T10:32:45.877Z</time></trkpt><trkpt lat="40.20412707554066" lon="9.358721546392413"><ele>614.0</ele><time>2026-04-29T10:32:46.877Z</time></trkpt><trkpt lat="40.2040516448202" lon="9.35866765183793"><ele>614.0</ele><time>2026-04-29T10:32:48.877Z</time></trkpt><trkpt lat="40.20403271214555" lon="9.358567804534937"><ele>614.0</ele><time>2026-04-29T10:32:51.877Z</time></trkpt><trkpt lat="40.20405660863883" lon="9.358489871978634"><ele>614.0</ele><time>2026-04-29T10:32:52.877Z</time></trkpt><trkpt lat="40.204093061693484" lon="9.358414174312593"><ele>614.0</ele><time>2026-04-29T10:32:53.877Z</time></trkpt><trkpt lat="40.20412567846459" lon="9.358314761531771"><ele>614.0</ele><time>2026-04-29T10:32:54.877Z</time></trkpt><trkpt lat="40.20416360105618" lon="9.358219217051488"><ele>614.0</ele><time>2026-04-29T10:32:55.877Z</time></trkpt><trkpt lat="40.204189239340316" lon="9.358131742144597"><ele>614.0</ele><time>2026-04-29T10:32:56.877Z</time></trkpt><trkpt lat="40.20421070254443" lon="9.358048438227428"><ele>614.0</ele><time>2026-04-29T10:32:57.877Z</time></trkpt><trkpt lat="40.20421275290567" lon="9.35794618171479"><ele>614.0</ele><time>2026-04-29T10:32:59.877Z</time></trkpt><trkpt lat="40.20424497402194" lon="9.357862835263187"><ele>614.0</ele><time>2026-04-29T10:33:02.877Z</time></trkpt><trkpt lat="40.204136475824555" lon="9.357747389471871"><ele>614.0</ele><time>2026-04-29T10:33:03.877Z</time></trkpt><trkpt lat="40.20407685810087" lon="9.357637902156434"><ele>614.0</ele><time>2026-04-29T10:33:05.877Z</time></trkpt><trkpt lat="40.20391420700214" lon="9.357532429061651"><ele>614.0</ele><time>2026-04-29T10:33:11.877Z</time></trkpt><trkpt lat="40.20385900311819" lon="9.35759111197188"><ele>617.6</ele><time>2026-04-29T10:33:12.877Z</time></trkpt><trkpt lat="40.20388694695096" lon="9.357758761052567"><ele>621.2</ele><time>2026-04-29T10:33:14.877Z</time></trkpt><trkpt lat="40.20385709410727" lon="9.357844428152623"><ele>624.8000000000001</ele><time>2026-04-29T10:33:33.864Z</time></trkpt><trkpt lat="40.20382122225426" lon="9.357759838709413"><ele>628.4</ele><time>2026-04-29T10:34:07.852Z</time></trkpt><trkpt lat="40.2038205454296" lon="9.357900459531132"><ele>632.0</ele><time>2026-04-29T10:42:48.844Z</time></trkpt><trkpt lat="40.20379467428107" lon="9.35798456171282"><ele>631.0</ele><time>2026-04-29T10:43:08.845Z</time></trkpt><trkpt lat="40.20374993135478" lon="9.358074634611985"><ele>630.0</ele><time>2026-04-29T10:43:11.845Z</time></trkpt><trkpt lat="40.20370582914779" lon="9.358151099097315"><ele>629.0</ele><time>2026-04-29T10:43:14.845Z</time></trkpt><trkpt lat="40.20370305841225" lon="9.358248082485291"><ele>628.0</ele><time>2026-04-29T10:43:17.845Z</time></trkpt><trkpt lat="40.20368073024087" lon="9.35834464034436"><ele>627.0</ele><time>2026-04-29T10:43:19.845Z</time></trkpt><trkpt lat="40.20365707438181" lon="9.358430157820587"><ele>626.0</ele><time>2026-04-29T10:43:23.845Z</time></trkpt><trkpt lat="40.20361600889582" lon="9.358543643696402"><ele>626.0</ele><time>2026-04-29T10:43:47.846Z</time></trkpt><trkpt lat="40.203544429607234" lon="9.358572666735759"><ele>626.0</ele><time>2026-04-29T10:45:48.844Z</time></trkpt><trkpt lat="40.20353694842803" lon="9.358665923339775"><ele>626.0</ele><time>2026-04-29T10:45:58.844Z</time></trkpt><trkpt lat="40.203665322778924" lon="9.358710615376038"><ele>626.0</ele><time>2026-04-29T10:49:50.876Z</time></trkpt><trkpt lat="40.20360307499659" lon="9.358694200538086"><ele>626.0</ele><time>2026-04-29T10:53:42.877Z</time></trkpt><trkpt lat="40.20354669460249" lon="9.358636863155807"><ele>626.0</ele><time>2026-04-29T11:18:29.847Z</time></trkpt><trkpt lat="40.20357222869985" lon="9.358560391657292"><ele>626.0</ele><time>2026-04-29T11:18:35.847Z</time></trkpt><trkpt lat="40.20361183707391" lon="9.358495353567223"><ele>626.0</ele><time>2026-04-29T11:18:41.847Z</time></trkpt><trkpt lat="40.20358023124373" lon="9.358593480457378"><ele>626.0</ele><time>2026-04-29T11:23:26.886Z</time></trkpt><trkpt lat="40.20352312938005" lon="9.358547822579013"><ele>626.0</ele><time>2026-04-29T11:28:04.888Z</time></trkpt><trkpt lat="40.20349934027603" lon="9.358629508587814"><ele>626.0</ele><time>2026-04-29T11:28:10.888Z</time></trkpt><trkpt lat="40.2034759918541" lon="9.358732779393717"><ele>626.0</ele><time>2026-04-29T11:28:14.888Z</time></trkpt><trkpt lat="40.20352958225577" lon="9.358673806311263"><ele>626.0</ele><time>2026-04-29T11:28:22.888Z</time></trkpt><trkpt lat="40.203479612431565" lon="9.358746812128144"><ele>626.0</ele><time>2026-04-29T11:29:12.888Z</time></trkpt><trkpt lat="40.20354122582499" lon="9.358661396666019"><ele>626.0</ele><time>2026-04-29T11:29:31.888Z</time></trkpt><trkpt lat="40.203567153869116" lon="9.358570930548597"><ele>626.0</ele><time>2026-04-29T11:29:33.888Z</time></trkpt><trkpt lat="40.20360719243513" lon="9.358472610115205"><ele>626.0</ele><time>2026-04-29T11:29:36.888Z</time></trkpt><trkpt lat="40.20363308420386" lon="9.358372106234688"><ele>626.0</ele><time>2026-04-29T11:29:38.888Z</time></trkpt><trkpt lat="40.203662616362315" lon="9.358283206621527"><ele>626.0</ele><time>2026-04-29T11:29:40.888Z</time></trkpt><trkpt lat="40.20368616298687" lon="9.358188746083112"><ele>626.0</ele><time>2026-04-29T11:29:42.888Z</time></trkpt><trkpt lat="40.203723855044" lon="9.358064195108016"><ele>626.0</ele><time>2026-04-29T11:29:45.888Z</time></trkpt><trkpt lat="40.20376484269474" lon="9.357954021639657"><ele>626.0</ele><time>2026-04-29T11:29:47.888Z</time></trkpt><trkpt lat="40.2037914882758" lon="9.357856151064674"><ele>626.0</ele><time>2026-04-29T11:29:49.888Z</time></trkpt><trkpt lat="40.20381924465306" lon="9.357760097340844"><ele>626.0</ele><time>2026-04-29T11:29:51.888Z</time></trkpt><trkpt lat="40.20379837052295" lon="9.357674023438959"><ele>626.0</ele><time>2026-04-29T11:29:57.888Z</time></trkpt><trkpt lat="40.20377419170863" lon="9.357586789443449"><ele>626.1428571428571</ele><time>2026-04-29T11:30:00.888Z</time></trkpt><trkpt lat="40.20374332241248" lon="9.357480097571681"><ele>626.2857142857143</ele><time>2026-04-29T11:30:03.888Z</time></trkpt><trkpt lat="40.20370563736974" lon="9.357412910383"><ele>626.4285714285714</ele><time>2026-04-29T11:30:06.888Z</time></trkpt><trkpt lat="40.20365598621692" lon="9.357360375054943"><ele>626.5714285714286</ele><time>2026-04-29T11:30:09.888Z</time></trkpt><trkpt lat="40.203643568625246" lon="9.35725476678732"><ele>626.7142857142857</ele><time>2026-04-29T11:30:12.888Z</time></trkpt><trkpt lat="40.20362226088935" lon="9.357168116103937"><ele>626.8571428571429</ele><time>2026-04-29T11:30:14.888Z</time></trkpt><trkpt lat="40.20356870010332" lon="9.357097978276823"><ele>627.0</ele><time>2026-04-29T11:30:16.888Z</time></trkpt><trkpt lat="40.203506755928586" lon="9.357068874772159"><ele>627.0</ele><time>2026-04-29T11:30:18.888Z</time></trkpt><trkpt lat="40.20348305947251" lon="9.35696614002664"><ele>627.0</ele><time>2026-04-29T11:30:20.888Z</time></trkpt><trkpt lat="40.203415042993115" lon="9.356899584282594"><ele>627.0</ele><time>2026-04-29T11:30:23.888Z</time></trkpt><trkpt lat="40.203359732318475" lon="9.356835436036347"><ele>627.0</ele><time>2026-04-29T11:30:27.889Z</time></trkpt><trkpt lat="40.203292315961875" lon="9.356754969888566"><ele>627.0</ele><time>2026-04-29T11:30:31.889Z</time></trkpt><trkpt lat="40.20324368602932" lon="9.356669074188368"><ele>627.0</ele><time>2026-04-29T11:30:34.889Z</time></trkpt><trkpt lat="40.20320184307266" lon="9.356542674330267"><ele>627.0</ele><time>2026-04-29T11:30:36.889Z</time></trkpt><trkpt lat="40.20321068172616" lon="9.356418724943708"><ele>627.0</ele><time>2026-04-29T11:30:38.889Z</time></trkpt><trkpt lat="40.20323916683941" lon="9.356273588585207"><ele>627.0</ele><time>2026-04-29T11:30:40.889Z</time></trkpt><trkpt lat="40.20324683811879" lon="9.35615401816471"><ele>627.0</ele><time>2026-04-29T11:30:42.889Z</time></trkpt><trkpt lat="40.20325717784463" lon="9.35605050856091"><ele>627.0</ele><time>2026-04-29T11:30:44.889Z</time></trkpt><trkpt lat="40.203265153633716" lon="9.355958718860597"><ele>627.4</ele><time>2026-04-29T11:30:46.889Z</time></trkpt><trkpt lat="40.20326663808523" lon="9.355863584240733"><ele>627.8000000000001</ele><time>2026-04-29T11:30:49.889Z</time></trkpt><trkpt lat="40.203245848280744" lon="9.35575463231856"><ele>628.2</ele><time>2026-04-29T11:31:14.887Z</time></trkpt><trkpt lat="40.20326661810408" lon="9.355637340826076"><ele>628.6</ele><time>2026-04-29T11:31:53.889Z</time></trkpt><trkpt lat="40.203295380836934" lon="9.355517805528198"><ele>629.0</ele><time>2026-04-29T11:31:55.889Z</time></trkpt><trkpt lat="40.20334519268458" lon="9.355398228132797"><ele>629.3333333333333</ele><time>2026-04-29T11:31:57.889Z</time></trkpt><trkpt lat="40.203407038980615" lon="9.355282620175387"><ele>629.6666666666666</ele><time>2026-04-29T11:31:59.889Z</time></trkpt><trkpt lat="40.203386319957936" lon="9.355204629106735"><ele>630.0</ele><time>2026-04-29T11:32:00.889Z</time></trkpt><trkpt lat="40.2033742671538" lon="9.355093945179837"><ele>630.3333333333334</ele><time>2026-04-29T11:32:02.889Z</time></trkpt><trkpt lat="40.2033845734762" lon="9.355003358282202"><ele>630.6666666666667</ele><time>2026-04-29T11:32:05.889Z</time></trkpt><trkpt lat="40.2033433035061" lon="9.354921421221247"><ele>631.0</ele><time>2026-04-29T11:32:07.889Z</time></trkpt><trkpt lat="40.203357173469314" lon="9.354785581419446"><ele>631.0</ele><time>2026-04-29T11:32:09.889Z</time></trkpt><trkpt lat="40.20333209140611" lon="9.354665560215015"><ele>631.0</ele><time>2026-04-29T11:32:11.889Z</time></trkpt><trkpt lat="40.20334774974656" lon="9.35454632626926"><ele>631.0</ele><time>2026-04-29T11:32:13.889Z</time></trkpt><trkpt lat="40.20338141943416" lon="9.354447557431678"><ele>631.0</ele><time>2026-04-29T11:32:15.889Z</time></trkpt><trkpt lat="40.203383997184105" lon="9.354342629875665"><ele>631.0</ele><time>2026-04-29T11:32:17.889Z</time></trkpt><trkpt lat="40.20336522445415" lon="9.354263388057705"><ele>631.0</ele><time>2026-04-29T11:32:19.889Z</time></trkpt><trkpt lat="40.20327918409848" lon="9.354182841382933"><ele>631.0</ele><time>2026-04-29T11:32:48.889Z</time></trkpt><trkpt lat="40.20323140332167" lon="9.354119661428362"><ele>631.0</ele><time>2026-04-29T11:33:05.889Z</time></trkpt><trkpt lat="40.203266337856476" lon="9.354013350182818"><ele>631.0</ele><time>2026-04-29T11:33:08.889Z</time></trkpt><trkpt lat="40.20332927965123" lon="9.353949848040648"><ele>631.0</ele><time>2026-04-29T11:33:10.889Z</time></trkpt><trkpt lat="40.20336515545428" lon="9.353850920197884"><ele>631.0</ele><time>2026-04-29T11:33:12.888Z</time></trkpt><trkpt lat="40.203417586494815" lon="9.353778264720983"><ele>631.0</ele><time>2026-04-29T11:33:14.889Z</time></trkpt><trkpt lat="40.20348770091263" lon="9.35368902173584"><ele>631.3333333333334</ele><time>2026-04-29T11:33:16.888Z</time></trkpt><trkpt lat="40.20354399268877" lon="9.353565791267993"><ele>631.6666666666667</ele><time>2026-04-29T11:33:18.888Z</time></trkpt><trkpt lat="40.20361171666655" lon="9.353506442972268"><ele>632.0</ele><time>2026-04-29T11:33:20.889Z</time></trkpt><trkpt lat="40.203650021060795" lon="9.353411804521173"><ele>632.3333333333334</ele><time>2026-04-29T11:33:22.888Z</time></trkpt><trkpt lat="40.20367356762591" lon="9.353310159034674"><ele>632.6666666666666</ele><time>2026-04-29T11:33:24.889Z</time></trkpt><trkpt lat="40.20374518405173" lon="9.353268740229863"><ele>633.0</ele><time>2026-04-29T11:33:25.889Z</time></trkpt><trkpt lat="40.20380462138521" lon="9.35318518478018"><ele>633.0</ele><time>2026-04-29T11:33:27.889Z</time></trkpt><trkpt lat="40.20384578090434" lon="9.353085859566983"><ele>633.0</ele><time>2026-04-29T11:33:29.889Z</time></trkpt><trkpt lat="40.203938255197436" lon="9.352990482681852"><ele>633.0</ele><time>2026-04-29T11:33:31.889Z</time></trkpt><trkpt lat="40.20402832591838" lon="9.352950123758466"><ele>633.0</ele><time>2026-04-29T11:33:33.889Z</time></trkpt><trkpt lat="40.20410161716067" lon="9.352889935604036"><ele>633.0</ele><time>2026-04-29T11:33:35.889Z</time></trkpt><trkpt lat="40.20415956625509" lon="9.352815929902492"><ele>632.5</ele><time>2026-04-29T11:33:38.889Z</time></trkpt><trkpt lat="40.20419015142857" lon="9.352678799568347"><ele>632.0</ele><time>2026-04-29T11:33:41.889Z</time></trkpt><trkpt lat="40.20422300708686" lon="9.35255135107185"><ele>631.5</ele><time>2026-04-29T11:33:43.889Z</time></trkpt><trkpt lat="40.20420015871785" lon="9.352400754718172"><ele>631.0</ele><time>2026-04-29T11:33:45.889Z</time></trkpt><trkpt lat="40.2042274182838" lon="9.352246642177635"><ele>633.8</ele><time>2026-04-29T11:33:47.889Z</time></trkpt><trkpt lat="40.204255284523626" lon="9.352106584839259"><ele>636.6</ele><time>2026-04-29T11:33:49.889Z</time></trkpt><trkpt lat="40.20433827318673" lon="9.351999865458062"><ele>639.4</ele><time>2026-04-29T11:33:51.889Z</time></trkpt><trkpt lat="40.20444557970296" lon="9.351925110735685"><ele>642.2</ele><time>2026-04-29T11:33:53.889Z</time></trkpt><trkpt lat="40.20449835107122" lon="9.351860209897838"><ele>645.0</ele><time>2026-04-29T11:33:54.889Z</time></trkpt><trkpt lat="40.2045600261509" lon="9.351814721860153"><ele>645.0</ele><time>2026-04-29T11:33:55.889Z</time></trkpt><trkpt lat="40.20461937177002" lon="9.35178239399193"><ele>645.0</ele><time>2026-04-29T11:33:56.889Z</time></trkpt><trkpt lat="40.20472573987784" lon="9.351717385028465"><ele>645.0</ele><time>2026-04-29T11:33:58.889Z</time></trkpt><trkpt lat="40.20478435805543" lon="9.351683972643722"><ele>645.0</ele><time>2026-04-29T11:33:59.889Z</time></trkpt><trkpt lat="40.20485765018648" lon="9.35165857636838"><ele>645.0</ele><time>2026-04-29T11:34:00.889Z</time></trkpt><trkpt lat="40.20494548230045" lon="9.35160762075742"><ele>645.0</ele><time>2026-04-29T11:34:01.889Z</time></trkpt><trkpt lat="40.20502824135368" lon="9.351562766706683"><ele>643.3333333333334</ele><time>2026-04-29T11:34:02.889Z</time></trkpt><trkpt lat="40.205104026270334" lon="9.351533639379083"><ele>641.6666666666666</ele><time>2026-04-29T11:34:03.889Z</time></trkpt><trkpt lat="40.205175990211316" lon="9.351514237859737"><ele>640.0</ele><time>2026-04-29T11:34:04.889Z</time></trkpt><trkpt lat="40.205250281599106" lon="9.351520278608076"><ele>638.3333333333333</ele><time>2026-04-29T11:34:05.889Z</time></trkpt><trkpt lat="40.205321748726845" lon="9.351508734981048"><ele>636.6666666666666</ele><time>2026-04-29T11:34:06.889Z</time></trkpt><trkpt lat="40.205440678013744" lon="9.351484056341707"><ele>635.0</ele><time>2026-04-29T11:34:08.889Z</time></trkpt><trkpt lat="40.20553966594762" lon="9.351441260162112"><ele>635.0</ele><time>2026-04-29T11:34:10.889Z</time></trkpt><trkpt lat="40.20562490994946" lon="9.351374136814421"><ele>635.0</ele><time>2026-04-29T11:34:12.889Z</time></trkpt><trkpt lat="40.205690822580046" lon="9.35127133503929"><ele>635.0</ele><time>2026-04-29T11:34:14.889Z</time></trkpt><trkpt lat="40.20575990293124" lon="9.351174397922504"><ele>635.0</ele><time>2026-04-29T11:34:16.889Z</time></trkpt><trkpt lat="40.20581127027558" lon="9.351107889806341"><ele>635.0</ele><time>2026-04-29T11:34:17.889Z</time></trkpt><trkpt lat="40.20583918591942" lon="9.351025235673873"><ele>635.0</ele><time>2026-04-29T11:34:18.889Z</time></trkpt><trkpt lat="40.20585457340004" lon="9.350942036977385"><ele>635.8333333333333</ele><time>2026-04-29T11:34:19.889Z</time></trkpt><trkpt lat="40.20586893328265" lon="9.3508517672525"><ele>636.6666666666666</ele><time>2026-04-29T11:34:20.889Z</time></trkpt><trkpt lat="40.205874823437334" lon="9.350758568958616"><ele>637.5</ele><time>2026-04-29T11:34:21.889Z</time></trkpt><trkpt lat="40.20591018028616" lon="9.350612514290527"><ele>638.3333333333334</ele><time>2026-04-29T11:34:23.889Z</time></trkpt><trkpt lat="40.20596977303663" lon="9.350529947432825"><ele>639.1666666666667</ele><time>2026-04-29T11:34:24.889Z</time></trkpt><trkpt lat="40.20603612572956" lon="9.350468464294023"><ele>640.0</ele><time>2026-04-29T11:34:25.889Z</time></trkpt><trkpt lat="40.206088199246366" lon="9.350409163091008"><ele>642.2</ele><time>2026-04-29T11:34:26.889Z</time></trkpt><trkpt lat="40.20614369188667" lon="9.350347873771009"><ele>644.4</ele><time>2026-04-29T11:34:27.889Z</time></trkpt><trkpt lat="40.206211524833876" lon="9.350311111992484"><ele>646.5999999999999</ele><time>2026-04-29T11:34:28.889Z</time></trkpt><trkpt lat="40.206265625778" lon="9.350265423945107"><ele>648.8</ele><time>2026-04-29T11:34:29.889Z</time></trkpt><trkpt lat="40.20636517143388" lon="9.350168966779894"><ele>651.0</ele><time>2026-04-29T11:34:31.889Z</time></trkpt><trkpt lat="40.206395439469475" lon="9.350002384656342"><ele>651.0</ele><time>2026-04-29T11:34:33.889Z</time></trkpt><trkpt lat="40.20641312369082" lon="9.34991127435555"><ele>651.0</ele><time>2026-04-29T11:34:34.889Z</time></trkpt><trkpt lat="40.206423717653536" lon="9.349793246483504"><ele>651.0</ele><time>2026-04-29T11:34:35.889Z</time></trkpt><trkpt lat="40.20641558521791" lon="9.349679735632542"><ele>651.0</ele><time>2026-04-29T11:34:36.889Z</time></trkpt><trkpt lat="40.20641389403803" lon="9.349575457345226"><ele>651.0</ele><time>2026-04-29T11:34:37.889Z</time></trkpt><trkpt lat="40.20642345406062" lon="9.349488965978985"><ele>651.0</ele><time>2026-04-29T11:34:38.889Z</time></trkpt><trkpt lat="40.20642049115208" lon="9.349400193150899"><ele>651.3333333333334</ele><time>2026-04-29T11:34:39.889Z</time></trkpt><trkpt lat="40.20642062569038" lon="9.349315661938272"><ele>651.6666666666666</ele><time>2026-04-29T11:34:40.889Z</time></trkpt><trkpt lat="40.206396455250115" lon="9.349218899428989"><ele>652.0</ele><time>2026-04-29T11:34:42.889Z</time></trkpt><trkpt lat="40.20635245460679" lon="9.349142166913596"><ele>652.3333333333333</ele><time>2026-04-29T11:34:44.889Z</time></trkpt><trkpt lat="40.2062794328809" lon="9.34902307776137"><ele>652.6666666666666</ele><time>2026-04-29T11:34:46.889Z</time></trkpt><trkpt lat="40.20622258380302" lon="9.348952177050096"><ele>653.0</ele><time>2026-04-29T11:34:47.889Z</time></trkpt><trkpt lat="40.206149168742925" lon="9.348875242408388"><ele>650.4</ele><time>2026-04-29T11:34:48.888Z</time></trkpt><trkpt lat="40.206082078240364" lon="9.348795312379586"><ele>647.8</ele><time>2026-04-29T11:34:49.888Z</time></trkpt><trkpt lat="40.20598560233944" lon="9.348735068430491"><ele>645.2</ele><time>2026-04-29T11:34:50.888Z</time></trkpt><trkpt lat="40.20590930662768" lon="9.348640047752841"><ele>642.6</ele><time>2026-04-29T11:34:51.888Z</time></trkpt><trkpt lat="40.20583083670859" lon="9.348561346243605"><ele>640.0</ele><time>2026-04-29T11:34:52.888Z</time></trkpt><trkpt lat="40.205755066692454" lon="9.34850327408789"><ele>640.0</ele><time>2026-04-29T11:34:53.888Z</time></trkpt><trkpt lat="40.2056790997343" lon="9.34846371873373"><ele>640.0</ele><time>2026-04-29T11:34:54.888Z</time></trkpt><trkpt lat="40.20558451138923" lon="9.348468257768602"><ele>640.0</ele><time>2026-04-29T11:34:55.888Z</time></trkpt><trkpt lat="40.20549819119073" lon="9.348494047073313"><ele>640.0</ele><time>2026-04-29T11:34:56.888Z</time></trkpt><trkpt lat="40.20542070335892" lon="9.348534515089021"><ele>640.0</ele><time>2026-04-29T11:34:57.888Z</time></trkpt><trkpt lat="40.20533934446627" lon="9.348584572209333"><ele>640.0</ele><time>2026-04-29T11:34:58.888Z</time></trkpt><trkpt lat="40.205251677776396" lon="9.34863167715932"><ele>641.4</ele><time>2026-04-29T11:34:59.888Z</time></trkpt><trkpt lat="40.20515930497837" lon="9.348651136168126"><ele>642.8</ele><time>2026-04-29T11:35:00.888Z</time></trkpt><trkpt lat="40.205061033947814" lon="9.348644372532394"><ele>644.2</ele><time>2026-04-29T11:35:01.888Z</time></trkpt><trkpt lat="40.204950580405985" lon="9.348610692052317"><ele>645.6</ele><time>2026-04-29T11:35:02.888Z</time></trkpt><trkpt lat="40.20484178929479" lon="9.348558321312906"><ele>647.0</ele><time>2026-04-29T11:35:03.887Z</time></trkpt><trkpt lat="40.204731558900214" lon="9.348502978313176"><ele>649.4000000000001</ele><time>2026-04-29T11:35:04.887Z</time></trkpt><trkpt lat="40.2046458540646" lon="9.348444410598526"><ele>651.8000000000001</ele><time>2026-04-29T11:35:05.887Z</time></trkpt><trkpt lat="40.20456787898985" lon="9.348395553393473"><ele>654.2</ele><time>2026-04-29T11:35:06.887Z</time></trkpt><trkpt lat="40.20448115863088" lon="9.348340015233836"><ele>656.6</ele><time>2026-04-29T11:35:08.887Z</time></trkpt><trkpt lat="40.204390458578494" lon="9.348310915303262"><ele>659.0</ele><time>2026-04-29T11:35:10.887Z</time></trkpt><trkpt lat="40.20427119261349" lon="9.348257358242275"><ele>659.0</ele><time>2026-04-29T11:35:12.887Z</time></trkpt><trkpt lat="40.20420685242175" lon="9.348235120360542"><ele>659.0</ele><time>2026-04-29T11:35:13.887Z</time></trkpt><trkpt lat="40.204135006265254" lon="9.348218981373872"><ele>659.0</ele><time>2026-04-29T11:35:14.887Z</time></trkpt><trkpt lat="40.204062256891085" lon="9.348205263762736"><ele>659.0</ele><time>2026-04-29T11:35:15.887Z</time></trkpt><trkpt lat="40.203987431511734" lon="9.348195979100865"><ele>659.0</ele><time>2026-04-29T11:35:16.887Z</time></trkpt><trkpt lat="40.203910712554304" lon="9.348168587543453"><ele>659.0</ele><time>2026-04-29T11:35:17.886Z</time></trkpt><trkpt lat="40.2038385828184" lon="9.348128796447364"><ele>659.0</ele><time>2026-04-29T11:35:18.886Z</time></trkpt><trkpt lat="40.20376537132861" lon="9.3480724951044"><ele>658.4000000000001</ele><time>2026-04-29T11:35:19.886Z</time></trkpt><trkpt lat="40.20369489544199" lon="9.348013337558829"><ele>657.8</ele><time>2026-04-29T11:35:20.885Z</time></trkpt><trkpt lat="40.203613583074606" lon="9.347952878012652"><ele>657.2</ele><time>2026-04-29T11:35:21.885Z</time></trkpt><trkpt lat="40.203522972171335" lon="9.347921271760516"><ele>656.5999999999999</ele><time>2026-04-29T11:35:22.885Z</time></trkpt><trkpt lat="40.203432387745416" lon="9.347889995289766"><ele>656.0</ele><time>2026-04-29T11:35:23.885Z</time></trkpt><trkpt lat="40.20333447567103" lon="9.347864751801655"><ele>656.0</ele><time>2026-04-29T11:35:24.885Z</time></trkpt><trkpt lat="40.20324076818617" lon="9.347828173643052"><ele>656.0</ele><time>2026-04-29T11:35:25.885Z</time></trkpt><trkpt lat="40.20314282451417" lon="9.347777833678478"><ele>656.0</ele><time>2026-04-29T11:35:26.886Z</time></trkpt><trkpt lat="40.203042137094485" lon="9.34771085954664"><ele>656.0</ele><time>2026-04-29T11:35:27.885Z</time></trkpt><trkpt lat="40.202937012256804" lon="9.347627796551985"><ele>656.0</ele><time>2026-04-29T11:35:28.885Z</time></trkpt><trkpt lat="40.202823966725525" lon="9.347538242306356"><ele>660.5</ele><time>2026-04-29T11:35:29.885Z</time></trkpt><trkpt lat="40.20270894231184" lon="9.34744935481144"><ele>665.0</ele><time>2026-04-29T11:35:30.886Z</time></trkpt><trkpt lat="40.20259706002753" lon="9.347368153265082"><ele>669.5</ele><time>2026-04-29T11:35:31.886Z</time></trkpt><trkpt lat="40.20248937838393" lon="9.347293523403486"><ele>674.0</ele><time>2026-04-29T11:35:32.886Z</time></trkpt><trkpt lat="40.202368393330204" lon="9.347255845877113"><ele>677.5</ele><time>2026-04-29T11:35:33.886Z</time></trkpt><trkpt lat="40.202240305683986" lon="9.347261271271872"><ele>681.0</ele><time>2026-04-29T11:35:34.886Z</time></trkpt><trkpt lat="40.20210955777661" lon="9.347256951444068"><ele>684.5</ele><time>2026-04-29T11:35:35.886Z</time></trkpt><trkpt lat="40.201979503039844" lon="9.347255523586378"><ele>688.0</ele><time>2026-04-29T11:35:36.886Z</time></trkpt><trkpt lat="40.20183695955478" lon="9.347245084214274"><ele>688.0</ele><time>2026-04-29T11:35:37.886Z</time></trkpt><trkpt lat="40.201694269139715" lon="9.34722186548142"><ele>688.0</ele><time>2026-04-29T11:35:38.886Z</time></trkpt><trkpt lat="40.20155532840915" lon="9.34717946526471"><ele>688.0</ele><time>2026-04-29T11:35:39.886Z</time></trkpt><trkpt lat="40.20142072610247" lon="9.347127305996425"><ele>688.0</ele><time>2026-04-29T11:35:40.886Z</time></trkpt><trkpt lat="40.20130402191267" lon="9.347064706407817"><ele>687.8</ele><time>2026-04-29T11:35:41.886Z</time></trkpt><trkpt lat="40.20120003949481" lon="9.347038709489372"><ele>687.5999999999999</ele><time>2026-04-29T11:35:42.886Z</time></trkpt><trkpt lat="40.20110117676856" lon="9.347043894477425"><ele>687.4000000000001</ele><time>2026-04-29T11:35:43.886Z</time></trkpt><trkpt lat="40.2010139981723" lon="9.347090357564174"><ele>687.2</ele><time>2026-04-29T11:35:44.886Z</time></trkpt><trkpt lat="40.200927573348224" lon="9.347169290665908"><ele>687.0</ele><time>2026-04-29T11:35:45.886Z</time></trkpt><trkpt lat="40.20085417976965" lon="9.34727778083652"><ele>687.0</ele><time>2026-04-29T11:35:46.886Z</time></trkpt><trkpt lat="40.20078374371215" lon="9.347409541292691"><ele>687.0</ele><time>2026-04-29T11:35:47.886Z</time></trkpt><trkpt lat="40.200717358690035" lon="9.347552212384727"><ele>687.0</ele><time>2026-04-29T11:35:48.886Z</time></trkpt><trkpt lat="40.20065991662559" lon="9.347713703938552"><ele>687.0</ele><time>2026-04-29T11:35:49.886Z</time></trkpt><trkpt lat="40.20056487760393" lon="9.347860349263721"><ele>686.0</ele><time>2026-04-29T11:35:50.886Z</time></trkpt><trkpt lat="40.20049571511348" lon="9.34802055299259"><ele>685.0</ele><time>2026-04-29T11:35:51.886Z</time></trkpt><trkpt lat="40.20043531523916" lon="9.348186584350758"><ele>684.0</ele><time>2026-04-29T11:35:52.886Z</time></trkpt><trkpt lat="40.20037809230178" lon="9.348370031444723"><ele>683.0</ele><time>2026-04-29T11:35:53.886Z</time></trkpt><trkpt lat="40.2003243773298" lon="9.348554931384601"><ele>683.0</ele><time>2026-04-29T11:35:54.886Z</time></trkpt><trkpt lat="40.20027533910648" lon="9.348737157949767"><ele>683.0</ele><time>2026-04-29T11:35:55.886Z</time></trkpt><trkpt lat="40.20021821413442" lon="9.348914190159578"><ele>683.0</ele><time>2026-04-29T11:35:56.886Z</time></trkpt><trkpt lat="40.20015952313577" lon="9.349079428158287"><ele>683.0</ele><time>2026-04-29T11:35:57.886Z</time></trkpt><trkpt lat="40.20009024415491" lon="9.349235769339685"><ele>685.6666666666666</ele><time>2026-04-29T11:35:58.886Z</time></trkpt><trkpt lat="40.199997764692" lon="9.349383237154457"><ele>688.3333333333334</ele><time>2026-04-29T11:35:59.886Z</time></trkpt><trkpt lat="40.199891278204255" lon="9.349523725619079"><ele>691.0</ele><time>2026-04-29T11:36:00.886Z</time></trkpt><trkpt lat="40.19978159374774" lon="9.349665934453933"><ele>695.3333333333334</ele><time>2026-04-29T11:36:01.886Z</time></trkpt><trkpt lat="40.199672450953734" lon="9.349820393273802"><ele>699.6666666666666</ele><time>2026-04-29T11:36:02.886Z</time></trkpt><trkpt lat="40.19956345191809" lon="9.34998799310572"><ele>704.0</ele><time>2026-04-29T11:36:03.886Z</time></trkpt><trkpt lat="40.19947090439022" lon="9.350154507124993"><ele>704.0</ele><time>2026-04-29T11:36:04.886Z</time></trkpt><trkpt lat="40.1993864693934" lon="9.350321824011619"><ele>704.0</ele><time>2026-04-29T11:36:05.886Z</time></trkpt><trkpt lat="40.19929855605869" lon="9.350476678158383"><ele>704.0</ele><time>2026-04-29T11:36:06.886Z</time></trkpt><trkpt lat="40.19921383816437" lon="9.350619511587572"><ele>704.0</ele><time>2026-04-29T11:36:07.886Z</time></trkpt><trkpt lat="40.199134353056735" lon="9.35074859499521"><ele>707.25</ele><time>2026-04-29T11:36:08.886Z</time></trkpt><trkpt lat="40.199037489643466" lon="9.35085892092048"><ele>710.5</ele><time>2026-04-29T11:36:09.886Z</time></trkpt><trkpt lat="40.198926303601446" lon="9.350951250766112"><ele>713.75</ele><time>2026-04-29T11:36:10.886Z</time></trkpt><trkpt lat="40.19879741638706" lon="9.351022209907518"><ele>717.0</ele><time>2026-04-29T11:36:11.886Z</time></trkpt><trkpt lat="40.19867084179978" lon="9.351070262521176"><ele>717.0</ele><time>2026-04-29T11:36:12.886Z</time></trkpt><trkpt lat="40.19853484367569" lon="9.351052284018497"><ele>717.0</ele><time>2026-04-29T11:36:13.886Z</time></trkpt><trkpt lat="40.19840090029241" lon="9.35104104583556"><ele>717.0</ele><time>2026-04-29T11:36:14.886Z</time></trkpt><trkpt lat="40.19827114578675" lon="9.351012477320722"><ele>717.0</ele><time>2026-04-29T11:36:15.886Z</time></trkpt><trkpt lat="40.19815838365077" lon="9.350965964722656"><ele>719.8</ele><time>2026-04-29T11:36:16.886Z</time></trkpt><trkpt lat="40.19806033368448" lon="9.35088832914589"><ele>722.6</ele><time>2026-04-29T11:36:17.886Z</time></trkpt><trkpt lat="40.19796387605645" lon="9.350791921796652"><ele>725.4</ele><time>2026-04-29T11:36:18.886Z</time></trkpt><trkpt lat="40.19785916119038" lon="9.35072850080592"><ele>728.1999999999999</ele><time>2026-04-29T11:36:19.886Z</time></trkpt><trkpt lat="40.19777592886324" lon="9.350710956150444"><ele>731.0</ele><time>2026-04-29T11:36:20.886Z</time></trkpt><trkpt lat="40.19768502509894" lon="9.350746154995244"><ele>731.0</ele><time>2026-04-29T11:36:21.886Z</time></trkpt><trkpt lat="40.19761621785795" lon="9.350791000240301"><ele>731.0</ele><time>2026-04-29T11:36:22.886Z</time></trkpt><trkpt lat="40.19755745339532" lon="9.35086106168717"><ele>731.0</ele><time>2026-04-29T11:36:23.886Z</time></trkpt><trkpt lat="40.19750815023483" lon="9.35095437276391"><ele>731.0</ele><time>2026-04-29T11:36:24.886Z</time></trkpt><trkpt lat="40.19748513699974" lon="9.351056363735836"><ele>731.0</ele><time>2026-04-29T11:36:25.886Z</time></trkpt><trkpt lat="40.197486755483375" lon="9.351156570989822"><ele>731.0</ele><time>2026-04-29T11:36:26.886Z</time></trkpt><trkpt lat="40.19751235813108" lon="9.351270368937636"><ele>733.1999999999999</ele><time>2026-04-29T11:36:27.886Z</time></trkpt><trkpt lat="40.19756369830039" lon="9.351378220922742"><ele>735.4</ele><time>2026-04-29T11:36:28.886Z</time></trkpt><trkpt lat="40.197634453670396" lon="9.351471942949951"><ele>737.6</ele><time>2026-04-29T11:36:29.886Z</time></trkpt><trkpt lat="40.19772299309811" lon="9.351545447632787"><ele>739.8</ele><time>2026-04-29T11:36:30.886Z</time></trkpt><trkpt lat="40.19783182413262" lon="9.351617764041702"><ele>742.0</ele><time>2026-04-29T11:36:31.886Z</time></trkpt><trkpt lat="40.19795243425057" lon="9.351696496392869"><ele>742.0</ele><time>2026-04-29T11:36:32.886Z</time></trkpt><trkpt lat="40.19807782859805" lon="9.351788054611221"><ele>742.0</ele><time>2026-04-29T11:36:33.886Z</time></trkpt><trkpt lat="40.19820476854263" lon="9.35187353100544"><ele>742.0</ele><time>2026-04-29T11:36:34.886Z</time></trkpt><trkpt lat="40.19832791084058" lon="9.35196550918643"><ele>742.0</ele><time>2026-04-29T11:36:35.886Z</time></trkpt><trkpt lat="40.19845585933402" lon="9.352054712906073"><ele>743.75</ele><time>2026-04-29T11:36:36.886Z</time></trkpt><trkpt lat="40.19857903919803" lon="9.352139926411471"><ele>745.5</ele><time>2026-04-29T11:36:37.886Z</time></trkpt><trkpt lat="40.1987031459574" lon="9.352217595657999"><ele>747.25</ele><time>2026-04-29T11:36:38.886Z</time></trkpt><trkpt lat="40.19881347850859" lon="9.352283795778932"><ele>749.0</ele><time>2026-04-29T11:36:39.886Z</time></trkpt><trkpt lat="40.1989149339486" lon="9.352321254739442"><ele>748.6</ele><time>2026-04-29T11:36:40.886Z</time></trkpt><trkpt lat="40.19901431074437" lon="9.352326785489662"><ele>748.2</ele><time>2026-04-29T11:36:41.886Z</time></trkpt><trkpt lat="40.1991090211803" lon="9.352297144077566"><ele>747.8000000000001</ele><time>2026-04-29T11:36:42.886Z</time></trkpt><trkpt lat="40.19919380549847" lon="9.35224144976048"><ele>747.4000000000001</ele><time>2026-04-29T11:36:43.886Z</time></trkpt><trkpt lat="40.19927736658966" lon="9.352173162358312"><ele>747.0</ele><time>2026-04-29T11:36:44.886Z</time></trkpt><trkpt lat="40.19936023880823" lon="9.352086710856863"><ele>744.2</ele><time>2026-04-29T11:36:45.886Z</time></trkpt><trkpt lat="40.19944311969885" lon="9.351990466754575"><ele>741.4000000000001</ele><time>2026-04-29T11:36:46.886Z</time></trkpt><trkpt lat="40.19952781876046" lon="9.351893140934214"><ele>738.5999999999999</ele><time>2026-04-29T11:36:47.886Z</time></trkpt><trkpt lat="40.19960839513365" lon="9.351797780536371"><ele>735.8</ele><time>2026-04-29T11:36:48.886Z</time></trkpt><trkpt lat="40.19968903348379" lon="9.351703153258173"><ele>733.0</ele><time>2026-04-29T11:36:49.886Z</time></trkpt><trkpt lat="40.199768118566" lon="9.351613284123985"><ele>734.2857142857142</ele><time>2026-04-29T11:36:50.886Z</time></trkpt><trkpt lat="40.19983973925076" lon="9.351557798379545"><ele>735.5714285714286</ele><time>2026-04-29T11:36:51.886Z</time></trkpt><trkpt lat="40.199913355022474" lon="9.351537026449774"><ele>736.8571428571429</ele><time>2026-04-29T11:36:52.886Z</time></trkpt><trkpt lat="40.199989355700154" lon="9.351545444120378"><ele>738.1428571428571</ele><time>2026-04-29T11:36:53.886Z</time></trkpt><trkpt lat="40.20004979312985" lon="9.351593096022512"><ele>739.4285714285714</ele><time>2026-04-29T11:36:54.886Z</time></trkpt><trkpt lat="40.20008426610133" lon="9.351672771235895"><ele>740.7142857142857</ele><time>2026-04-29T11:36:55.886Z</time></trkpt><trkpt lat="40.20008976802445" lon="9.35176313650368"><ele>742.0</ele><time>2026-04-29T11:36:56.886Z</time></trkpt><trkpt lat="40.20004517242562" lon="9.351847598488877"><ele>742.0</ele><time>2026-04-29T11:36:57.886Z</time></trkpt><trkpt lat="40.199985758030095" lon="9.351923529109687"><ele>742.0</ele><time>2026-04-29T11:36:58.886Z</time></trkpt><trkpt lat="40.19991060005632" lon="9.352009427780397"><ele>742.0</ele><time>2026-04-29T11:36:59.886Z</time></trkpt><trkpt lat="40.199827109435134" lon="9.352111742064132"><ele>742.0</ele><time>2026-04-29T11:37:00.886Z</time></trkpt><trkpt lat="40.19973996530064" lon="9.352218276943717"><ele>742.0</ele><time>2026-04-29T11:37:01.886Z</time></trkpt><trkpt lat="40.1996535769497" lon="9.352323738156281"><ele>743.25</ele><time>2026-04-29T11:37:02.886Z</time></trkpt><trkpt lat="40.19955974664074" lon="9.352438284451045"><ele>744.5</ele><time>2026-04-29T11:37:03.886Z</time></trkpt><trkpt lat="40.199464373524165" lon="9.352555123037899"><ele>745.75</ele><time>2026-04-29T11:37:04.886Z</time></trkpt><trkpt lat="40.199369498329304" lon="9.352672371993615"><ele>747.0</ele><time>2026-04-29T11:37:05.887Z</time></trkpt><trkpt lat="40.19927455379436" lon="9.352789706504918"><ele>747.0</ele><time>2026-04-29T11:37:06.887Z</time></trkpt><trkpt lat="40.19917620961155" lon="9.352902161395196"><ele>747.0</ele><time>2026-04-29T11:37:07.887Z</time></trkpt><trkpt lat="40.19907794447864" lon="9.352995293192075"><ele>747.0</ele><time>2026-04-29T11:37:08.887Z</time></trkpt><trkpt lat="40.19897292915331" lon="9.353045154997123"><ele>747.0</ele><time>2026-04-29T11:37:09.887Z</time></trkpt><trkpt lat="40.19885956769302" lon="9.353097216088646"><ele>747.5</ele><time>2026-04-29T11:37:10.887Z</time></trkpt><trkpt lat="40.19873272398026" lon="9.353101175685001"><ele>748.0</ele><time>2026-04-29T11:37:11.887Z</time></trkpt><trkpt lat="40.19860085090077" lon="9.353059248455349"><ele>748.5</ele><time>2026-04-29T11:37:12.887Z</time></trkpt><trkpt lat="40.19845652691857" lon="9.35303211690412"><ele>749.0</ele><time>2026-04-29T11:37:13.887Z</time></trkpt><trkpt lat="40.19830856048659" lon="9.353002549666517"><ele>753.3333333333333</ele><time>2026-04-29T11:37:14.887Z</time></trkpt><trkpt lat="40.198152983568335" lon="9.352970542166547"><ele>757.6666666666666</ele><time>2026-04-29T11:37:15.887Z</time></trkpt><trkpt lat="40.197991395476905" lon="9.352938306495703"><ele>762.0</ele><time>2026-04-29T11:37:16.887Z</time></trkpt><trkpt lat="40.19782493077547" lon="9.352906990095763"><ele>762.0</ele><time>2026-04-29T11:37:17.887Z</time></trkpt><trkpt lat="40.19766489450256" lon="9.35287705155305"><ele>762.0</ele><time>2026-04-29T11:37:18.887Z</time></trkpt><trkpt lat="40.197500448417976" lon="9.352846923039811"><ele>762.0</ele><time>2026-04-29T11:37:19.887Z</time></trkpt><trkpt lat="40.19733534357443" lon="9.352816517845767"><ele>767.6666666666667</ele><time>2026-04-29T11:37:20.887Z</time></trkpt><trkpt lat="40.19717337627191" lon="9.352784820183818"><ele>773.3333333333334</ele><time>2026-04-29T11:37:21.887Z</time></trkpt><trkpt lat="40.197020081879586" lon="9.352754819826947"><ele>779.0</ele><time>2026-04-29T11:37:22.887Z</time></trkpt><trkpt lat="40.19687935472213" lon="9.352729253312555"><ele>779.0</ele><time>2026-04-29T11:37:23.885Z</time></trkpt><trkpt lat="40.19675332239853" lon="9.352715498407637"><ele>779.0</ele><time>2026-04-29T11:37:24.884Z</time></trkpt><trkpt lat="40.19664891443022" lon="9.352657022922838"><ele>779.0</ele><time>2026-04-29T11:37:25.884Z</time></trkpt><trkpt lat="40.19656325846249" lon="9.352575583217545"><ele>779.0</ele><time>2026-04-29T11:37:26.885Z</time></trkpt><trkpt lat="40.19650556447292" lon="9.352483194187068"><ele>779.0</ele><time>2026-04-29T11:37:27.885Z</time></trkpt><trkpt lat="40.19648272498041" lon="9.35236883162446"><ele>781.2</ele><time>2026-04-29T11:37:28.885Z</time></trkpt><trkpt lat="40.19648911735255" lon="9.35224052323165"><ele>783.4000000000001</ele><time>2026-04-29T11:37:29.885Z</time></trkpt><trkpt lat="40.19648596733768" lon="9.3520968592766"><ele>785.6</ele><time>2026-04-29T11:37:30.885Z</time></trkpt><trkpt lat="40.19646520892427" lon="9.351963210410124"><ele>787.8</ele><time>2026-04-29T11:37:31.885Z</time></trkpt><trkpt lat="40.19642017460966" lon="9.351835614017812"><ele>790.0</ele><time>2026-04-29T11:37:32.885Z</time></trkpt><trkpt lat="40.19634275797651" lon="9.351713588485206"><ele>790.0</ele><time>2026-04-29T11:37:33.885Z</time></trkpt><trkpt lat="40.196255989851664" lon="9.351601633822705"><ele>790.0</ele><time>2026-04-29T11:37:34.885Z</time></trkpt><trkpt lat="40.19617147808645" lon="9.35149020274952"><ele>790.0</ele><time>2026-04-29T11:37:35.885Z</time></trkpt><trkpt lat="40.196103819358626" lon="9.351407533993752"><ele>790.0</ele><time>2026-04-29T11:37:36.884Z</time></trkpt><trkpt lat="40.19602863593419" lon="9.351326695314084"><ele>790.0</ele><time>2026-04-29T11:37:37.884Z</time></trkpt><trkpt lat="40.19595041096153" lon="9.351267875244135"><ele>789.6</ele><time>2026-04-29T11:37:38.884Z</time></trkpt><trkpt lat="40.19585683210191" lon="9.351249064721355"><ele>789.2</ele><time>2026-04-29T11:37:39.884Z</time></trkpt><trkpt lat="40.19576002461299" lon="9.35125347575525"><ele>788.8</ele><time>2026-04-29T11:37:40.884Z</time></trkpt><trkpt lat="40.1956721096415" lon="9.351287009117259"><ele>788.4</ele><time>2026-04-29T11:37:41.884Z</time></trkpt><trkpt lat="40.195599882615106" lon="9.351370175056914"><ele>788.0</ele><time>2026-04-29T11:37:42.884Z</time></trkpt><trkpt lat="40.195515777187595" lon="9.351452312364295"><ele>788.0</ele><time>2026-04-29T11:37:43.884Z</time></trkpt><trkpt lat="40.19542832049396" lon="9.351546548076268"><ele>788.0</ele><time>2026-04-29T11:37:44.884Z</time></trkpt><trkpt lat="40.19534029547917" lon="9.351664828536038"><ele>788.0</ele><time>2026-04-29T11:37:45.884Z</time></trkpt><trkpt lat="40.195255393838636" lon="9.351804430592884"><ele>788.0</ele><time>2026-04-29T11:37:46.884Z</time></trkpt><trkpt lat="40.19518845023143" lon="9.351942746415332"><ele>788.0</ele><time>2026-04-29T11:37:47.884Z</time></trkpt><trkpt lat="40.19513590850123" lon="9.352093594254299"><ele>788.0</ele><time>2026-04-29T11:37:48.884Z</time></trkpt><trkpt lat="40.19511257341085" lon="9.352268014432665"><ele>788.0</ele><time>2026-04-29T11:37:49.884Z</time></trkpt><trkpt lat="40.195090510759414" lon="9.352443778829011"><ele>788.0</ele><time>2026-04-29T11:37:50.884Z</time></trkpt><trkpt lat="40.19504164882597" lon="9.352608992772309"><ele>788.25</ele><time>2026-04-29T11:37:51.884Z</time></trkpt><trkpt lat="40.194982238330574" lon="9.352758712228082"><ele>788.5</ele><time>2026-04-29T11:37:52.884Z</time></trkpt><trkpt lat="40.19490516107633" lon="9.352875244152868"><ele>788.75</ele><time>2026-04-29T11:37:53.884Z</time></trkpt><trkpt lat="40.19481211800435" lon="9.35299126547127"><ele>789.0</ele><time>2026-04-29T11:37:54.884Z</time></trkpt><trkpt lat="40.19470810899493" lon="9.353094360714215"><ele>792.75</ele><time>2026-04-29T11:37:55.885Z</time></trkpt><trkpt lat="40.19460385297513" lon="9.353207785518281"><ele>796.5</ele><time>2026-04-29T11:37:56.885Z</time></trkpt><trkpt lat="40.19449229022391" lon="9.35330969194661"><ele>800.25</ele><time>2026-04-29T11:37:57.885Z</time></trkpt><trkpt lat="40.1944001326636" lon="9.353462830875763"><ele>804.0</ele><time>2026-04-29T11:37:58.885Z</time></trkpt><trkpt lat="40.1943015927856" lon="9.35361072015705"><ele>804.0</ele><time>2026-04-29T11:37:59.885Z</time></trkpt><trkpt lat="40.194201397014986" lon="9.353769209616958"><ele>804.0</ele><time>2026-04-29T11:38:00.885Z</time></trkpt><trkpt lat="40.19409870495825" lon="9.353926242097995"><ele>804.0</ele><time>2026-04-29T11:38:01.885Z</time></trkpt><trkpt lat="40.19399368883705" lon="9.354082179136409"><ele>805.6666666666667</ele><time>2026-04-29T11:38:02.885Z</time></trkpt><trkpt lat="40.193877404990964" lon="9.354225877915336"><ele>807.3333333333334</ele><time>2026-04-29T11:38:03.885Z</time></trkpt><trkpt lat="40.193769029919515" lon="9.354386790560813"><ele>809.0</ele><time>2026-04-29T11:38:04.885Z</time></trkpt><trkpt lat="40.19366469846351" lon="9.354541699213085"><ele>809.0</ele><time>2026-04-29T11:38:05.885Z</time></trkpt><trkpt lat="40.193564075576596" lon="9.35469015712898"><ele>809.0</ele><time>2026-04-29T11:38:06.885Z</time></trkpt><trkpt lat="40.19346963030874" lon="9.35482947689658"><ele>809.0</ele><time>2026-04-29T11:38:07.885Z</time></trkpt><trkpt lat="40.19338033938381" lon="9.354961194144003"><ele>809.0</ele><time>2026-04-29T11:38:08.885Z</time></trkpt><trkpt lat="40.19329448825907" lon="9.355077723461275"><ele>812.5</ele><time>2026-04-29T11:38:09.885Z</time></trkpt><trkpt lat="40.19321050936914" lon="9.355179283397103"><ele>816.0</ele><time>2026-04-29T11:38:10.885Z</time></trkpt><trkpt lat="40.193119038002244" lon="9.35524701581647"><ele>819.5</ele><time>2026-04-29T11:38:11.885Z</time></trkpt><trkpt lat="40.19300290834529" lon="9.355264542830616"><ele>823.0</ele><time>2026-04-29T11:38:12.885Z</time></trkpt><trkpt lat="40.19288829821393" lon="9.355250304451442"><ele>825.0</ele><time>2026-04-29T11:38:13.885Z</time></trkpt><trkpt lat="40.19278055681105" lon="9.355200899190006"><ele>827.0</ele><time>2026-04-29T11:38:14.885Z</time></trkpt><trkpt lat="40.19266302933285" lon="9.355153406230142"><ele>829.0</ele><time>2026-04-29T11:38:15.885Z</time></trkpt><trkpt lat="40.19255275279141" lon="9.355081948884646"><ele>831.0</ele><time>2026-04-29T11:38:16.885Z</time></trkpt><trkpt lat="40.19245672595978" lon="9.35499398966307"><ele>831.0</ele><time>2026-04-29T11:38:17.885Z</time></trkpt><trkpt lat="40.192372518124564" lon="9.354889669899832"><ele>831.0</ele><time>2026-04-29T11:38:18.885Z</time></trkpt><trkpt lat="40.19230645056197" lon="9.354766274012434"><ele>831.0</ele><time>2026-04-29T11:38:19.885Z</time></trkpt><trkpt lat="40.192254235499355" lon="9.354621072350069"><ele>831.0</ele><time>2026-04-29T11:38:20.885Z</time></trkpt><trkpt lat="40.192222296514636" lon="9.35445624904928"><ele>835.25</ele><time>2026-04-29T11:38:21.885Z</time></trkpt><trkpt lat="40.19220081474379" lon="9.354281212169285"><ele>839.5</ele><time>2026-04-29T11:38:22.885Z</time></trkpt><trkpt lat="40.19218206515587" lon="9.35410315066478"><ele>843.75</ele><time>2026-04-29T11:38:23.885Z</time></trkpt><trkpt lat="40.19216467193726" lon="9.35391043293505"><ele>848.0</ele><time>2026-04-29T11:38:24.885Z</time></trkpt><trkpt lat="40.19213849511474" lon="9.353728235962993"><ele>848.0</ele><time>2026-04-29T11:38:25.885Z</time></trkpt><trkpt lat="40.192099530619814" lon="9.353561590871365"><ele>848.0</ele><time>2026-04-29T11:38:26.885Z</time></trkpt><trkpt lat="40.19205575495514" lon="9.353419123776694"><ele>848.0</ele><time>2026-04-29T11:38:27.885Z</time></trkpt><trkpt lat="40.19200546881738" lon="9.353294876903032"><ele>848.0</ele><time>2026-04-29T11:38:28.885Z</time></trkpt><trkpt lat="40.19194067553366" lon="9.353184550375033"><ele>848.0</ele><time>2026-04-29T11:38:29.885Z</time></trkpt><trkpt lat="40.19186984756071" lon="9.353088392418607"><ele>848.0</ele><time>2026-04-29T11:38:30.885Z</time></trkpt><trkpt lat="40.19177148558073" lon="9.353016837843771"><ele>848.0</ele><time>2026-04-29T11:38:31.885Z</time></trkpt><trkpt lat="40.19165224828014" lon="9.352993418656165"><ele>848.0</ele><time>2026-04-29T11:38:32.885Z</time></trkpt><trkpt lat="40.19153436002806" lon="9.353006427604042"><ele>849.25</ele><time>2026-04-29T11:38:33.885Z</time></trkpt><trkpt lat="40.191419280843775" lon="9.353031913029202"><ele>850.5</ele><time>2026-04-29T11:38:34.885Z</time></trkpt><trkpt lat="40.19130018317022" lon="9.353044821058432"><ele>851.75</ele><time>2026-04-29T11:38:35.885Z</time></trkpt><trkpt lat="40.19116835784996" lon="9.353077604733858"><ele>853.0</ele><time>2026-04-29T11:38:36.885Z</time></trkpt><trkpt lat="40.19104006435693" lon="9.353113576299453"><ele>853.75</ele><time>2026-04-29T11:38:37.885Z</time></trkpt><trkpt lat="40.1909099213171" lon="9.353150786169511"><ele>854.5</ele><time>2026-04-29T11:38:38.885Z</time></trkpt><trkpt lat="40.190778128417996" lon="9.353178415404026"><ele>855.25</ele><time>2026-04-29T11:38:39.885Z</time></trkpt><trkpt lat="40.190656143813115" lon="9.353187587412092"><ele>856.0</ele><time>2026-04-29T11:38:40.885Z</time></trkpt><trkpt lat="40.19054461517542" lon="9.353161847164255"><ele>858.1999999999999</ele><time>2026-04-29T11:38:41.885Z</time></trkpt><trkpt lat="40.19044544706631" lon="9.353106213918137"><ele>860.3999999999999</ele><time>2026-04-29T11:38:42.885Z</time></trkpt><trkpt lat="40.19037374905615" lon="9.353006748807754"><ele>862.6</ele><time>2026-04-29T11:38:43.885Z</time></trkpt><trkpt lat="40.190299773881044" lon="9.35289017251541"><ele>864.8</ele><time>2026-04-29T11:38:44.885Z</time></trkpt><trkpt lat="40.190250195275446" lon="9.352747988427355"><ele>867.0</ele><time>2026-04-29T11:38:45.885Z</time></trkpt><trkpt lat="40.1902148801022" lon="9.352598998029434"><ele>867.0</ele><time>2026-04-29T11:38:46.885Z</time></trkpt><trkpt lat="40.19018096532148" lon="9.35244755671785"><ele>867.0</ele><time>2026-04-29T11:38:47.885Z</time></trkpt><trkpt lat="40.19015076230961" lon="9.352289094135312"><ele>867.0</ele><time>2026-04-29T11:38:48.885Z</time></trkpt><trkpt lat="40.19011219296882" lon="9.352142452412005"><ele>867.0</ele><time>2026-04-29T11:38:49.885Z</time></trkpt><trkpt lat="40.190075136883976" lon="9.351998415383719"><ele>866.2</ele><time>2026-04-29T11:38:50.885Z</time></trkpt><trkpt lat="40.19003197706904" lon="9.351874626099738"><ele>865.4000000000001</ele><time>2026-04-29T11:38:51.885Z</time></trkpt><trkpt lat="40.18997696476879" lon="9.351763366745091"><ele>864.5999999999999</ele><time>2026-04-29T11:38:52.885Z</time></trkpt><trkpt lat="40.18990233669244" lon="9.351664698217501"><ele>863.8</ele><time>2026-04-29T11:38:53.885Z</time></trkpt><trkpt lat="40.18982817652142" lon="9.3515587532285"><ele>863.0</ele><time>2026-04-29T11:38:54.885Z</time></trkpt><trkpt lat="40.189735040519416" lon="9.351477175434754"><ele>866.2</ele><time>2026-04-29T11:38:55.885Z</time></trkpt><trkpt lat="40.189628334983645" lon="9.351423795208312"><ele>869.4</ele><time>2026-04-29T11:38:56.885Z</time></trkpt><trkpt lat="40.189514337138306" lon="9.351428080091695"><ele>872.6000000000001</ele><time>2026-04-29T11:38:57.885Z</time></trkpt><trkpt lat="40.18941662153763" lon="9.351468657718323"><ele>875.8000000000001</ele><time>2026-04-29T11:38:58.885Z</time></trkpt><trkpt lat="40.18930967400592" lon="9.351484947846274"><ele>879.0</ele><time>2026-04-29T11:38:59.885Z</time></trkpt><trkpt lat="40.1892031090886" lon="9.351484768091554"><ele>879.0</ele><time>2026-04-29T11:39:00.885Z</time></trkpt><trkpt lat="40.18909666915412" lon="9.351460921612606"><ele>879.0</ele><time>2026-04-29T11:39:01.885Z</time></trkpt><trkpt lat="40.188988581380144" lon="9.35140672726032"><ele>879.0</ele><time>2026-04-29T11:39:02.885Z</time></trkpt><trkpt lat="40.18887628631199" lon="9.351336822165289"><ele>879.0</ele><time>2026-04-29T11:39:03.885Z</time></trkpt><trkpt lat="40.18876602561247" lon="9.351244207686323"><ele>878.0</ele><time>2026-04-29T11:39:04.885Z</time></trkpt><trkpt lat="40.18864291849117" lon="9.35116910334116"><ele>877.0</ele><time>2026-04-29T11:39:05.885Z</time></trkpt><trkpt lat="40.18852876145402" lon="9.351099742986335"><ele>876.0</ele><time>2026-04-29T11:39:06.885Z</time></trkpt><trkpt lat="40.18842332914463" lon="9.351055166994334"><ele>875.0</ele><time>2026-04-29T11:39:07.885Z</time></trkpt><trkpt lat="40.188317767284914" lon="9.351034042127218"><ele>875.0</ele><time>2026-04-29T11:39:08.885Z</time></trkpt><trkpt lat="40.188217073657626" lon="9.351044201952927"><ele>875.0</ele><time>2026-04-29T11:39:09.885Z</time></trkpt><trkpt lat="40.18811510098505" lon="9.351084520526372"><ele>875.0</ele><time>2026-04-29T11:39:10.885Z</time></trkpt><trkpt lat="40.1880177907906" lon="9.351155641326537"><ele>875.0</ele><time>2026-04-29T11:39:11.885Z</time></trkpt><trkpt lat="40.18792077894258" lon="9.351246561985183"><ele>875.0</ele><time>2026-04-29T11:39:12.885Z</time></trkpt><trkpt lat="40.18782598953624" lon="9.351344325503245"><ele>878.2</ele><time>2026-04-29T11:39:13.885Z</time></trkpt><trkpt lat="40.1877313173409" lon="9.351446590314215"><ele>881.4</ele><time>2026-04-29T11:39:14.885Z</time></trkpt><trkpt lat="40.187644793284115" lon="9.351537662432646"><ele>884.5999999999999</ele><time>2026-04-29T11:39:15.885Z</time></trkpt><trkpt lat="40.18755797213834" lon="9.35161272269618"><ele>887.8</ele><time>2026-04-29T11:39:16.885Z</time></trkpt><trkpt lat="40.18746110388241" lon="9.351666288693929"><ele>891.0</ele><time>2026-04-29T11:39:17.885Z</time></trkpt><trkpt lat="40.1873513644065" lon="9.351694732496892"><ele>894.1999999999999</ele><time>2026-04-29T11:39:18.885Z</time></trkpt><trkpt lat="40.18725807675406" lon="9.351690015256285"><ele>897.3999999999999</ele><time>2026-04-29T11:39:19.885Z</time></trkpt><trkpt lat="40.18717195834434" lon="9.351649767292447"><ele>900.6</ele><time>2026-04-29T11:39:20.885Z</time></trkpt><trkpt lat="40.18709249414614" lon="9.351583289153604"><ele>903.8</ele><time>2026-04-29T11:39:21.885Z</time></trkpt><trkpt lat="40.1870171656873" lon="9.351494787279764"><ele>907.0</ele><time>2026-04-29T11:39:22.885Z</time></trkpt><trkpt lat="40.18695034669902" lon="9.351381108284096"><ele>904.25</ele><time>2026-04-29T11:39:23.885Z</time></trkpt><trkpt lat="40.18687847207896" lon="9.351257915199003"><ele>901.5</ele><time>2026-04-29T11:39:24.885Z</time></trkpt><trkpt lat="40.18680093248183" lon="9.351133976010376"><ele>898.75</ele><time>2026-04-29T11:39:25.885Z</time></trkpt><trkpt lat="40.18672081522872" lon="9.350997656008003"><ele>896.0</ele><time>2026-04-29T11:39:26.885Z</time></trkpt><trkpt lat="40.18664317065973" lon="9.350850621463797"><ele>896.0</ele><time>2026-04-29T11:39:27.886Z</time></trkpt><trkpt lat="40.18657111656167" lon="9.350690067490993"><ele>896.0</ele><time>2026-04-29T11:39:28.886Z</time></trkpt><trkpt lat="40.186510361332104" lon="9.35053180124423"><ele>896.0</ele><time>2026-04-29T11:39:29.885Z</time></trkpt><trkpt lat="40.18645546243978" lon="9.350364827554216"><ele>896.0</ele><time>2026-04-29T11:39:30.885Z</time></trkpt><trkpt lat="40.18640297318516" lon="9.350195528054035"><ele>901.25</ele><time>2026-04-29T11:39:31.885Z</time></trkpt><trkpt lat="40.186339797355416" lon="9.350030595040439"><ele>906.5</ele><time>2026-04-29T11:39:32.884Z</time></trkpt><trkpt lat="40.18628530468442" lon="9.349886074729024"><ele>911.75</ele><time>2026-04-29T11:39:33.884Z</time></trkpt><trkpt lat="40.18622314843208" lon="9.349763824746281"><ele>917.0</ele><time>2026-04-29T11:39:34.884Z</time></trkpt><trkpt lat="40.18614413408032" lon="9.34966428848353"><ele>917.0</ele><time>2026-04-29T11:39:35.885Z</time></trkpt><trkpt lat="40.18605722835583" lon="9.349586119573713"><ele>917.0</ele><time>2026-04-29T11:39:36.884Z</time></trkpt><trkpt lat="40.18596973563281" lon="9.349519710886955"><ele>917.0</ele><time>2026-04-29T11:39:37.884Z</time></trkpt><trkpt lat="40.18586842209561" lon="9.34948267559416"><ele>917.0</ele><time>2026-04-29T11:39:38.884Z</time></trkpt><trkpt lat="40.185751533358946" lon="9.349496362957415"><ele>917.0</ele><time>2026-04-29T11:39:39.885Z</time></trkpt><trkpt lat="40.18563948346036" lon="9.349541144614577"><ele>919.0</ele><time>2026-04-29T11:39:40.885Z</time></trkpt><trkpt lat="40.185518774874765" lon="9.349584838353543"><ele>921.0</ele><time>2026-04-29T11:39:41.884Z</time></trkpt><trkpt lat="40.185395093256695" lon="9.349621279470533"><ele>923.0</ele><time>2026-04-29T11:39:42.884Z</time></trkpt><trkpt lat="40.18527042720172" lon="9.349648619328065"><ele>925.0</ele><time>2026-04-29T11:39:43.884Z</time></trkpt><trkpt lat="40.185140925805186" lon="9.349673071578497"><ele>925.0</ele><time>2026-04-29T11:39:44.884Z</time></trkpt><trkpt lat="40.185011045706396" lon="9.349684779949191"><ele>925.0</ele><time>2026-04-29T11:39:45.884Z</time></trkpt><trkpt lat="40.18488118607235" lon="9.349685170865206"><ele>925.0</ele><time>2026-04-29T11:39:46.884Z</time></trkpt><trkpt lat="40.184753244234194" lon="9.349669565486593"><ele>925.0</ele><time>2026-04-29T11:39:47.884Z</time></trkpt><trkpt lat="40.184621577595784" lon="9.349695594928102"><ele>926.75</ele><time>2026-04-29T11:39:48.884Z</time></trkpt><trkpt lat="40.184493441552554" lon="9.349736978664668"><ele>928.5</ele><time>2026-04-29T11:39:49.884Z</time></trkpt><trkpt lat="40.184359938612275" lon="9.349797365109698"><ele>930.25</ele><time>2026-04-29T11:39:50.884Z</time></trkpt><trkpt lat="40.18422218423001" lon="9.349858629449068"><ele>932.0</ele><time>2026-04-29T11:39:51.884Z</time></trkpt><trkpt lat="40.1840864673153" lon="9.349912788867872"><ele>933.2</ele><time>2026-04-29T11:39:52.884Z</time></trkpt><trkpt lat="40.18396046448709" lon="9.349954537026214"><ele>934.4000000000001</ele><time>2026-04-29T11:39:53.884Z</time></trkpt><trkpt lat="40.18384861523552" lon="9.349984917058624"><ele>935.5999999999999</ele><time>2026-04-29T11:39:54.884Z</time></trkpt><trkpt lat="40.18374496996636" lon="9.349989699148699"><ele>936.8</ele><time>2026-04-29T11:39:55.884Z</time></trkpt><trkpt lat="40.18365382046734" lon="9.34996824395124"><ele>938.0</ele><time>2026-04-29T11:39:56.884Z</time></trkpt><trkpt lat="40.18357338939553" lon="9.349921467403101"><ele>938.0</ele><time>2026-04-29T11:39:57.884Z</time></trkpt><trkpt lat="40.18350740854435" lon="9.349851342847199"><ele>938.0</ele><time>2026-04-29T11:39:58.884Z</time></trkpt><trkpt lat="40.18346221062168" lon="9.34975263974684"><ele>938.0</ele><time>2026-04-29T11:39:59.884Z</time></trkpt><trkpt lat="40.18343262296229" lon="9.349636039157573"><ele>938.0</ele><time>2026-04-29T11:40:00.884Z</time></trkpt><trkpt lat="40.183425693369124" lon="9.349509886690262"><ele>938.0</ele><time>2026-04-29T11:40:01.884Z</time></trkpt><trkpt lat="40.18345972299924" lon="9.349382671230458"><ele>938.0</ele><time>2026-04-29T11:40:02.884Z</time></trkpt><trkpt lat="40.183486780679374" lon="9.349242162535155"><ele>938.0</ele><time>2026-04-29T11:40:03.884Z</time></trkpt><trkpt lat="40.18348722393733" lon="9.349113190821187"><ele>938.0</ele><time>2026-04-29T11:40:04.884Z</time></trkpt><trkpt lat="40.183480181252435" lon="9.348998152932479"><ele>938.0</ele><time>2026-04-29T11:40:05.884Z</time></trkpt><trkpt lat="40.183443304285056" lon="9.348879645966026"><ele>938.0</ele><time>2026-04-29T11:40:06.884Z</time></trkpt><trkpt lat="40.183386479703266" lon="9.3487849858294"><ele>937.25</ele><time>2026-04-29T11:40:07.884Z</time></trkpt><trkpt lat="40.18331476663083" lon="9.348691126090085"><ele>936.5</ele><time>2026-04-29T11:40:08.884Z</time></trkpt><trkpt lat="40.18323453666015" lon="9.34859644871277"><ele>935.75</ele><time>2026-04-29T11:40:09.884Z</time></trkpt><trkpt lat="40.18314735697321" lon="9.348486860871203"><ele>935.0</ele><time>2026-04-29T11:40:10.884Z</time></trkpt><trkpt lat="40.183047690521505" lon="9.348378686924386"><ele>935.0</ele><time>2026-04-29T11:40:11.884Z</time></trkpt><trkpt lat="40.182943452536044" lon="9.348249362675404"><ele>935.0</ele><time>2026-04-29T11:40:12.884Z</time></trkpt><trkpt lat="40.182833408398196" lon="9.348113626555921"><ele>935.0</ele><time>2026-04-29T11:40:13.884Z</time></trkpt><trkpt lat="40.18272050391737" lon="9.347976917853046"><ele>935.0</ele><time>2026-04-29T11:40:14.884Z</time></trkpt><trkpt lat="40.18260755634337" lon="9.347838442265774"><ele>935.0</ele><time>2026-04-29T11:40:15.884Z</time></trkpt><trkpt lat="40.18249459051925" lon="9.347698923986577"><ele>935.0</ele><time>2026-04-29T11:40:16.884Z</time></trkpt><trkpt lat="40.182378516558124" lon="9.34756619256616"><ele>935.0</ele><time>2026-04-29T11:40:17.884Z</time></trkpt><trkpt lat="40.182264612592036" lon="9.347436628303583"><ele>934.0</ele><time>2026-04-29T11:40:18.884Z</time></trkpt><trkpt lat="40.182144359754766" lon="9.347317599627376"><ele>933.0</ele><time>2026-04-29T11:40:19.884Z</time></trkpt><trkpt lat="40.18202017479654" lon="9.347211555708645"><ele>932.0</ele><time>2026-04-29T11:40:20.884Z</time></trkpt><trkpt lat="40.181891381680536" lon="9.347108568942389"><ele>932.0</ele><time>2026-04-29T11:40:21.884Z</time></trkpt><trkpt lat="40.1817578600806" lon="9.347021666018957"><ele>932.0</ele><time>2026-04-29T11:40:22.884Z</time></trkpt><trkpt lat="40.18160997849899" lon="9.34694405695117"><ele>932.0</ele><time>2026-04-29T11:40:23.884Z</time></trkpt><trkpt lat="40.18145802862599" lon="9.346888236099684"><ele>936.3333333333334</ele><time>2026-04-29T11:40:24.884Z</time></trkpt><trkpt lat="40.18130455338388" lon="9.346831511371859"><ele>940.6666666666667</ele><time>2026-04-29T11:40:25.884Z</time></trkpt><trkpt lat="40.18115386707559" lon="9.346770882059307"><ele>945.0</ele><time>2026-04-29T11:40:26.884Z</time></trkpt><trkpt lat="40.181003985554895" lon="9.346713988712064"><ele>945.0</ele><time>2026-04-29T11:40:27.884Z</time></trkpt><trkpt lat="40.18086059999294" lon="9.346654395095866"><ele>945.0</ele><time>2026-04-29T11:40:28.884Z</time></trkpt><trkpt lat="40.1807278176538" lon="9.346587229517944"><ele>945.0</ele><time>2026-04-29T11:40:29.884Z</time></trkpt><trkpt lat="40.18060828332507" lon="9.346507532259647"><ele>945.0</ele><time>2026-04-29T11:40:30.884Z</time></trkpt><trkpt lat="40.1805026670284" lon="9.34641493506394"><ele>948.75</ele><time>2026-04-29T11:40:31.884Z</time></trkpt><trkpt lat="40.180418125872045" lon="9.346311808459706"><ele>952.5</ele><time>2026-04-29T11:40:32.884Z</time></trkpt><trkpt lat="40.18035414709034" lon="9.346189001249531"><ele>956.25</ele><time>2026-04-29T11:40:33.884Z</time></trkpt><trkpt lat="40.18033245744392" lon="9.346032790517794"><ele>960.0</ele><time>2026-04-29T11:40:34.884Z</time></trkpt><trkpt lat="40.18029950966921" lon="9.345865491104487"><ele>960.0</ele><time>2026-04-29T11:40:35.884Z</time></trkpt><trkpt lat="40.18025162451606" lon="9.34569556407523"><ele>960.0</ele><time>2026-04-29T11:40:36.884Z</time></trkpt><trkpt lat="40.180241220598475" lon="9.345525278975854"><ele>960.0</ele><time>2026-04-29T11:40:37.884Z</time></trkpt><trkpt lat="40.18021675901551" lon="9.345383463324191"><ele>960.0</ele><time>2026-04-29T11:40:38.884Z</time></trkpt><trkpt lat="40.180188396344235" lon="9.345274435001638"><ele>959.4</ele><time>2026-04-29T11:40:39.884Z</time></trkpt><trkpt lat="40.18013198182736" lon="9.345176901652003"><ele>958.8</ele><time>2026-04-29T11:40:40.884Z</time></trkpt><trkpt lat="40.180050847832455" lon="9.345115161734777"><ele>958.2</ele><time>2026-04-29T11:40:41.884Z</time></trkpt><trkpt lat="40.17996941263456" lon="9.345052119541277"><ele>957.6</ele><time>2026-04-29T11:40:42.884Z</time></trkpt><trkpt lat="40.179848492124805" lon="9.345025314467385"><ele>957.0</ele><time>2026-04-29T11:40:43.884Z</time></trkpt><trkpt lat="40.17973391920868" lon="9.345007335649788"><ele>957.0</ele><time>2026-04-29T11:40:44.885Z</time></trkpt><trkpt lat="40.179609272202754" lon="9.34498310733476"><ele>957.0</ele><time>2026-04-29T11:40:45.885Z</time></trkpt><trkpt lat="40.17947055643654" lon="9.344967555087884"><ele>957.0</ele><time>2026-04-29T11:40:46.885Z</time></trkpt><trkpt lat="40.179329286552175" lon="9.344953085434915"><ele>957.0</ele><time>2026-04-29T11:40:47.885Z</time></trkpt><trkpt lat="40.17918480555566" lon="9.344938668661372"><ele>957.0</ele><time>2026-04-29T11:40:48.885Z</time></trkpt><trkpt lat="40.17903535737131" lon="9.344921704541637"><ele>957.0</ele><time>2026-04-29T11:40:49.885Z</time></trkpt><trkpt lat="40.17888327513625" lon="9.344904295374615"><ele>957.0</ele><time>2026-04-29T11:40:50.885Z</time></trkpt><trkpt lat="40.1787316322439" lon="9.34489190800793"><ele>959.3333333333333</ele><time>2026-04-29T11:40:51.885Z</time></trkpt><trkpt lat="40.178578146391494" lon="9.344852046774585"><ele>961.6666666666666</ele><time>2026-04-29T11:40:52.885Z</time></trkpt><trkpt lat="40.17842052380887" lon="9.344840131784064"><ele>964.0</ele><time>2026-04-29T11:40:53.885Z</time></trkpt><trkpt lat="40.178263113296836" lon="9.344819967443225"><ele>963.0</ele><time>2026-04-29T11:40:54.885Z</time></trkpt><trkpt lat="40.17812554484398" lon="9.344817618640207"><ele>962.0</ele><time>2026-04-29T11:40:55.885Z</time></trkpt><trkpt lat="40.177999715863415" lon="9.344827094107977"><ele>961.0</ele><time>2026-04-29T11:40:56.885Z</time></trkpt><trkpt lat="40.17788445190869" lon="9.344843486128717"><ele>960.0</ele><time>2026-04-29T11:40:57.885Z</time></trkpt><trkpt lat="40.17778910678797" lon="9.344903256636359"><ele>960.0</ele><time>2026-04-29T11:40:58.885Z</time></trkpt><trkpt lat="40.17771073376545" lon="9.344998416745542"><ele>960.0</ele><time>2026-04-29T11:40:59.885Z</time></trkpt><trkpt lat="40.177630930438866" lon="9.345099287234236"><ele>960.0</ele><time>2026-04-29T11:41:00.885Z</time></trkpt><trkpt lat="40.17755046257592" lon="9.345208516148293"><ele>960.0</ele><time>2026-04-29T11:41:01.885Z</time></trkpt><trkpt lat="40.177470020451615" lon="9.345318545874564"><ele>960.0</ele><time>2026-04-29T11:41:02.885Z</time></trkpt><trkpt lat="40.17738381536061" lon="9.34541219557728"><ele>960.0</ele><time>2026-04-29T11:41:03.885Z</time></trkpt><trkpt lat="40.17729183735703" lon="9.345487003842242"><ele>960.0</ele><time>2026-04-29T11:41:04.885Z</time></trkpt><trkpt lat="40.17719196624369" lon="9.345542549950613"><ele>960.0</ele><time>2026-04-29T11:41:05.885Z</time></trkpt><trkpt lat="40.17710492213227" lon="9.34556538476841"><ele>960.0</ele><time>2026-04-29T11:41:06.885Z</time></trkpt><trkpt lat="40.17701831140076" lon="9.345548642057464"><ele>959.6</ele><time>2026-04-29T11:41:07.885Z</time></trkpt><trkpt lat="40.1769383973107" lon="9.345499076770162"><ele>959.2</ele><time>2026-04-29T11:41:08.885Z</time></trkpt><trkpt lat="40.17686479033512" lon="9.345425230557117"><ele>958.8</ele><time>2026-04-29T11:41:09.885Z</time></trkpt><trkpt lat="40.17677792644618" lon="9.345375363999365"><ele>958.4</ele><time>2026-04-29T11:41:10.885Z</time></trkpt><trkpt lat="40.176709427728206" lon="9.345307825305715"><ele>958.0</ele><time>2026-04-29T11:41:11.885Z</time></trkpt><trkpt lat="40.1766203375185" lon="9.345284815864314"><ele>958.0</ele><time>2026-04-29T11:41:12.885Z</time></trkpt><trkpt lat="40.17652973098382" lon="9.345317556837891"><ele>958.0</ele><time>2026-04-29T11:41:13.885Z</time></trkpt><trkpt lat="40.17643238242164" lon="9.345350418476153"><ele>958.0</ele><time>2026-04-29T11:41:14.885Z</time></trkpt><trkpt lat="40.176334154601385" lon="9.345411965571913"><ele>958.0</ele><time>2026-04-29T11:41:15.885Z</time></trkpt><trkpt lat="40.1762370600954" lon="9.345496043109335"><ele>958.0</ele><time>2026-04-29T11:41:16.885Z</time></trkpt><trkpt lat="40.17613140386513" lon="9.345587797308132"><ele>961.25</ele><time>2026-04-29T11:41:17.885Z</time></trkpt><trkpt lat="40.17601786382071" lon="9.345671755906235"><ele>964.5</ele><time>2026-04-29T11:41:18.885Z</time></trkpt><trkpt lat="40.1759000499149" lon="9.345741845139775"><ele>967.75</ele><time>2026-04-29T11:41:19.885Z</time></trkpt><trkpt lat="40.17576663847056" lon="9.345778682491346"><ele>971.0</ele><time>2026-04-29T11:41:20.885Z</time></trkpt><trkpt lat="40.17559357781617" lon="9.345822515919345"><ele>971.0</ele><time>2026-04-29T11:41:21.885Z</time></trkpt><trkpt lat="40.17543824024073" lon="9.34584678941515"><ele>971.0</ele><time>2026-04-29T11:41:22.885Z</time></trkpt><trkpt lat="40.175285235022756" lon="9.345863892149936"><ele>971.0</ele><time>2026-04-29T11:41:23.885Z</time></trkpt><trkpt lat="40.17512639153203" lon="9.345894312284024"><ele>971.0</ele><time>2026-04-29T11:41:24.885Z</time></trkpt><trkpt lat="40.174959577112006" lon="9.34592850125932"><ele>971.0</ele><time>2026-04-29T11:41:25.885Z</time></trkpt><trkpt lat="40.17480556898172" lon="9.345966534541333"><ele>971.0</ele><time>2026-04-29T11:41:26.885Z</time></trkpt><trkpt lat="40.174671634564106" lon="9.346000815829266"><ele>969.75</ele><time>2026-04-29T11:41:27.885Z</time></trkpt><trkpt lat="40.174526771068834" lon="9.346041942409531"><ele>968.5</ele><time>2026-04-29T11:41:28.885Z</time></trkpt><trkpt lat="40.17438468863379" lon="9.346079773959097"><ele>967.25</ele><time>2026-04-29T11:41:29.885Z</time></trkpt><trkpt lat="40.174247918177294" lon="9.34612696948356"><ele>966.0</ele><time>2026-04-29T11:41:30.885Z</time></trkpt><trkpt lat="40.17411824720039" lon="9.34617913961222"><ele>966.25</ele><time>2026-04-29T11:41:31.885Z</time></trkpt><trkpt lat="40.173987647562" lon="9.346262095018375"><ele>966.5</ele><time>2026-04-29T11:41:32.885Z</time></trkpt><trkpt lat="40.17385924909373" lon="9.346353363924969"><ele>966.75</ele><time>2026-04-29T11:41:33.885Z</time></trkpt><trkpt lat="40.17373328126318" lon="9.346463855522225"><ele>967.0</ele><time>2026-04-29T11:41:34.885Z</time></trkpt><trkpt lat="40.1736067308646" lon="9.34658353778406"><ele>969.6666666666666</ele><time>2026-04-29T11:41:35.884Z</time></trkpt><trkpt lat="40.173478910359925" lon="9.346706913070664"><ele>972.3333333333333</ele><time>2026-04-29T11:41:36.884Z</time></trkpt><trkpt lat="40.17334714083131" lon="9.346837800794583"><ele>975.0</ele><time>2026-04-29T11:41:37.884Z</time></trkpt><trkpt lat="40.1732133773084" lon="9.346964021744535"><ele>977.3333333333333</ele><time>2026-04-29T11:41:38.884Z</time></trkpt><trkpt lat="40.173082177322634" lon="9.347093691577818"><ele>979.6666666666666</ele><time>2026-04-29T11:41:39.884Z</time></trkpt><trkpt lat="40.17295353429652" lon="9.347219388551263"><ele>982.0</ele><time>2026-04-29T11:41:40.884Z</time></trkpt><trkpt lat="40.1728247859601" lon="9.347344797486562"><ele>982.3333333333333</ele><time>2026-04-29T11:41:41.884Z</time></trkpt><trkpt lat="40.17269760647647" lon="9.347470695540377"><ele>982.6666666666667</ele><time>2026-04-29T11:41:42.884Z</time></trkpt><trkpt lat="40.17257328608714" lon="9.347590568049567"><ele>983.0</ele><time>2026-04-29T11:41:43.884Z</time></trkpt><trkpt lat="40.17245417794124" lon="9.347710227389372"><ele>983.25</ele><time>2026-04-29T11:41:44.884Z</time></trkpt><trkpt lat="40.17233994913788" lon="9.347825597021178"><ele>983.5</ele><time>2026-04-29T11:41:45.884Z</time></trkpt><trkpt lat="40.17222749080042" lon="9.347936838431929"><ele>983.75</ele><time>2026-04-29T11:41:46.884Z</time></trkpt><trkpt lat="40.17212008968978" lon="9.348051559169475"><ele>984.0</ele><time>2026-04-29T11:41:47.884Z</time></trkpt><trkpt lat="40.172002827514035" lon="9.348141990802581"><ele>984.75</ele><time>2026-04-29T11:41:48.883Z</time></trkpt><trkpt lat="40.17188948859867" lon="9.34822271442872"><ele>985.5</ele><time>2026-04-29T11:41:49.884Z</time></trkpt><trkpt lat="40.17177783713399" lon="9.348276136401138"><ele>986.25</ele><time>2026-04-29T11:41:50.884Z</time></trkpt><trkpt lat="40.17166287879823" lon="9.348316594956087"><ele>987.0</ele><time>2026-04-29T11:41:51.884Z</time></trkpt><trkpt lat="40.171538429006176" lon="9.34835333791428"><ele>986.75</ele><time>2026-04-29T11:41:52.884Z</time></trkpt><trkpt lat="40.17143178966697" lon="9.348383496874275"><ele>986.5</ele><time>2026-04-29T11:41:53.884Z</time></trkpt><trkpt lat="40.17131846173144" lon="9.348431759951483"><ele>986.25</ele><time>2026-04-29T11:41:54.884Z</time></trkpt><trkpt lat="40.17120164301658" lon="9.348437099637081"><ele>986.0</ele><time>2026-04-29T11:41:55.884Z</time></trkpt><trkpt lat="40.17107920661573" lon="9.34846421564627"><ele>986.0</ele><time>2026-04-29T11:41:56.884Z</time></trkpt><trkpt lat="40.17095470040952" lon="9.348499126417488"><ele>986.0</ele><time>2026-04-29T11:41:57.884Z</time></trkpt><trkpt lat="40.170827567202394" lon="9.348535208512109"><ele>986.0</ele><time>2026-04-29T11:41:58.884Z</time></trkpt><trkpt lat="40.170699290840695" lon="9.34857052673119"><ele>986.0</ele><time>2026-04-29T11:41:59.884Z</time></trkpt><trkpt lat="40.17057486382868" lon="9.348623774941803"><ele>985.0</ele><time>2026-04-29T11:42:00.884Z</time></trkpt><trkpt lat="40.170446196404974" lon="9.348651014373903"><ele>984.0</ele><time>2026-04-29T11:42:01.884Z</time></trkpt><trkpt lat="40.17031152580243" lon="9.34866287112065"><ele>983.0</ele><time>2026-04-29T11:42:02.884Z</time></trkpt><trkpt lat="40.170169218720325" lon="9.348704701302779"><ele>982.0</ele><time>2026-04-29T11:42:03.884Z</time></trkpt><trkpt lat="40.17002563901549" lon="9.348746540391138"><ele>982.0</ele><time>2026-04-29T11:42:04.884Z</time></trkpt><trkpt lat="40.16988156158379" lon="9.348787303288432"><ele>982.0</ele><time>2026-04-29T11:42:05.884Z</time></trkpt><trkpt lat="40.169732519208466" lon="9.348831334315575"><ele>982.0</ele><time>2026-04-29T11:42:06.884Z</time></trkpt><trkpt lat="40.16958434529238" lon="9.34887944228103"><ele>982.0</ele><time>2026-04-29T11:42:07.884Z</time></trkpt><trkpt lat="40.16944393383646" lon="9.34893398588682"><ele>982.0</ele><time>2026-04-29T11:42:08.884Z</time></trkpt><trkpt lat="40.16930583716602" lon="9.349000191886011"><ele>982.0</ele><time>2026-04-29T11:42:09.884Z</time></trkpt><trkpt lat="40.16916930254364" lon="9.34907808709665"><ele>982.0</ele><time>2026-04-29T11:42:10.884Z</time></trkpt><trkpt lat="40.16903018124663" lon="9.349165013828559"><ele>980.6666666666666</ele><time>2026-04-29T11:42:11.884Z</time></trkpt><trkpt lat="40.16889037437226" lon="9.349252764380088"><ele>979.3333333333333</ele><time>2026-04-29T11:42:12.884Z</time></trkpt><trkpt lat="40.168746388855006" lon="9.349341583344305"><ele>978.0</ele><time>2026-04-29T11:42:13.884Z</time></trkpt><trkpt lat="40.16860415655735" lon="9.34941702016437"><ele>978.0</ele><time>2026-04-29T11:42:14.884Z</time></trkpt><trkpt lat="40.16846190969492" lon="9.349500040628376"><ele>978.0</ele><time>2026-04-29T11:42:15.884Z</time></trkpt><trkpt lat="40.16831361537664" lon="9.349580446009886"><ele>978.0</ele><time>2026-04-29T11:42:16.884Z</time></trkpt><trkpt lat="40.16817314672839" lon="9.349659301783863"><ele>977.6666666666667</ele><time>2026-04-29T11:42:17.884Z</time></trkpt><trkpt lat="40.168026133362815" lon="9.349736308014103"><ele>977.3333333333334</ele><time>2026-04-29T11:42:18.884Z</time></trkpt><trkpt lat="40.167868962399915" lon="9.349813628074742"><ele>977.0</ele><time>2026-04-29T11:42:19.884Z</time></trkpt><trkpt lat="40.1677043666992" lon="9.349922029580554"><ele>977.0</ele><time>2026-04-29T11:42:20.884Z</time></trkpt><trkpt lat="40.167536604519" lon="9.350021300756627"><ele>977.0</ele><time>2026-04-29T11:42:21.884Z</time></trkpt><trkpt lat="40.16737170548878" lon="9.350118138378797"><ele>977.0</ele><time>2026-04-29T11:42:22.884Z</time></trkpt><trkpt lat="40.16720716382759" lon="9.350209344460271"><ele>975.3333333333334</ele><time>2026-04-29T11:42:23.884Z</time></trkpt><trkpt lat="40.16704760336629" lon="9.350279936083929"><ele>973.6666666666667</ele><time>2026-04-29T11:42:24.884Z</time></trkpt><trkpt lat="40.16689308903852" lon="9.350368129750233"><ele>972.0</ele><time>2026-04-29T11:42:25.884Z</time></trkpt><trkpt lat="40.166741048638414" lon="9.350456888487903"><ele>971.6666666666667</ele><time>2026-04-29T11:42:26.884Z</time></trkpt><trkpt lat="40.166592078655945" lon="9.350542873313415"><ele>971.3333333333334</ele><time>2026-04-29T11:42:27.884Z</time></trkpt><trkpt lat="40.16645120303014" lon="9.350622931578073"><ele>971.0</ele><time>2026-04-29T11:42:28.884Z</time></trkpt><trkpt lat="40.16631792916219" lon="9.350703142023212"><ele>971.0</ele><time>2026-04-29T11:42:29.884Z</time></trkpt><trkpt lat="40.1661975731565" lon="9.350767471650496"><ele>971.0</ele><time>2026-04-29T11:42:30.884Z</time></trkpt><trkpt lat="40.16608721128971" lon="9.350815505623274"><ele>971.0</ele><time>2026-04-29T11:42:31.884Z</time></trkpt><trkpt lat="40.16598286866235" lon="9.350844931054597"><ele>971.0</ele><time>2026-04-29T11:42:32.884Z</time></trkpt><trkpt lat="40.165881113738514" lon="9.350816791556523"><ele>971.0</ele><time>2026-04-29T11:42:33.884Z</time></trkpt><trkpt lat="40.16578096030152" lon="9.350770816235002"><ele>971.0</ele><time>2026-04-29T11:42:34.884Z</time></trkpt><trkpt lat="40.16566979256702" lon="9.350712186853839"><ele>971.0</ele><time>2026-04-29T11:42:35.884Z</time></trkpt><trkpt lat="40.16555089886432" lon="9.350639652414785"><ele>971.0</ele><time>2026-04-29T11:42:36.884Z</time></trkpt><trkpt lat="40.16541636947791" lon="9.350555693677922"><ele>968.6666666666667</ele><time>2026-04-29T11:42:37.884Z</time></trkpt><trkpt lat="40.1652758636606" lon="9.350468799158246"><ele>966.3333333333333</ele><time>2026-04-29T11:42:38.884Z</time></trkpt><trkpt lat="40.16513285050348" lon="9.35038476094513"><ele>964.0</ele><time>2026-04-29T11:42:39.884Z</time></trkpt><trkpt lat="40.164984265613924" lon="9.350296852267471"><ele>963.6666666666666</ele><time>2026-04-29T11:42:40.884Z</time></trkpt><trkpt lat="40.16483538495267" lon="9.350204925177671"><ele>963.3333333333333</ele><time>2026-04-29T11:42:41.884Z</time></trkpt><trkpt lat="40.16468348089621" lon="9.350098879519589"><ele>963.0</ele><time>2026-04-29T11:42:42.884Z</time></trkpt><trkpt lat="40.16453632481044" lon="9.349988756498758"><ele>963.0</ele><time>2026-04-29T11:42:43.884Z</time></trkpt><trkpt lat="40.16438480469526" lon="9.349873721642856"><ele>963.0</ele><time>2026-04-29T11:42:44.884Z</time></trkpt><trkpt lat="40.1642322859317" lon="9.349758536749452"><ele>963.0</ele><time>2026-04-29T11:42:45.884Z</time></trkpt><trkpt lat="40.164079763686416" lon="9.349643559100198"><ele>960.6666666666667</ele><time>2026-04-29T11:42:46.884Z</time></trkpt><trkpt lat="40.16392895889771" lon="9.349529876138458"><ele>958.3333333333334</ele><time>2026-04-29T11:42:47.884Z</time></trkpt><trkpt lat="40.163778107289474" lon="9.349416157877693"><ele>956.0</ele><time>2026-04-29T11:42:48.884Z</time></trkpt><trkpt lat="40.163636363784484" lon="9.34930845394123"><ele>956.0</ele><time>2026-04-29T11:42:49.884Z</time></trkpt><trkpt lat="40.16350023337628" lon="9.34920348264025"><ele>956.0</ele><time>2026-04-29T11:42:50.884Z</time></trkpt><trkpt lat="40.16336702566589" lon="9.34910076504645"><ele>956.0</ele><time>2026-04-29T11:42:51.884Z</time></trkpt><trkpt lat="40.16323474219024" lon="9.34899699386785"><ele>957.0</ele><time>2026-04-29T11:42:52.884Z</time></trkpt><trkpt lat="40.163100113565726" lon="9.34889056510078"><ele>958.0</ele><time>2026-04-29T11:42:53.884Z</time></trkpt><trkpt lat="40.16297012216249" lon="9.348786515790692"><ele>959.0</ele><time>2026-04-29T11:42:54.884Z</time></trkpt><trkpt lat="40.16284000404601" lon="9.348691867316882"><ele>957.0</ele><time>2026-04-29T11:42:55.884Z</time></trkpt><trkpt lat="40.16271456999193" lon="9.348614003160641"><ele>955.0</ele><time>2026-04-29T11:42:56.884Z</time></trkpt><trkpt lat="40.16258135950442" lon="9.348545623016884"><ele>953.0</ele><time>2026-04-29T11:42:57.884Z</time></trkpt><trkpt lat="40.162435518965275" lon="9.348494877723507"><ele>951.0</ele><time>2026-04-29T11:42:58.884Z</time></trkpt><trkpt lat="40.16227600384149" lon="9.348468513161468"><ele>950.0</ele><time>2026-04-29T11:42:59.884Z</time></trkpt><trkpt lat="40.16211451954319" lon="9.348460015356952"><ele>949.0</ele><time>2026-04-29T11:43:00.884Z</time></trkpt><trkpt lat="40.16194620252064" lon="9.34842846222843"><ele>948.0</ele><time>2026-04-29T11:43:01.884Z</time></trkpt><trkpt lat="40.16176883272329" lon="9.348393826801658"><ele>948.0</ele><time>2026-04-29T11:43:02.884Z</time></trkpt><trkpt lat="40.16159027673275" lon="9.348358298237434"><ele>948.0</ele><time>2026-04-29T11:43:03.884Z</time></trkpt><trkpt lat="40.161412535260624" lon="9.348298624268319"><ele>948.0</ele><time>2026-04-29T11:43:04.884Z</time></trkpt><trkpt lat="40.161232930277016" lon="9.348259130511874"><ele>948.0</ele><time>2026-04-29T11:43:05.884Z</time></trkpt><trkpt lat="40.161058458831434" lon="9.348220801009264"><ele>948.0</ele><time>2026-04-29T11:43:06.884Z</time></trkpt><trkpt lat="40.16089153206548" lon="9.348210164626312"><ele>948.0</ele><time>2026-04-29T11:43:07.884Z</time></trkpt><trkpt lat="40.16073002951674" lon="9.348172633150062"><ele>947.75</ele><time>2026-04-29T11:43:08.884Z</time></trkpt><trkpt lat="40.16057162731542" lon="9.348140209795238"><ele>947.5</ele><time>2026-04-29T11:43:09.884Z</time></trkpt><trkpt lat="40.16042719374367" lon="9.348109089681069"><ele>947.25</ele><time>2026-04-29T11:43:10.884Z</time></trkpt><trkpt lat="40.160295161799915" lon="9.348079372745618"><ele>947.0</ele><time>2026-04-29T11:43:11.884Z</time></trkpt><trkpt lat="40.160167018280475" lon="9.348037937344255"><ele>947.0</ele><time>2026-04-29T11:43:12.884Z</time></trkpt><trkpt lat="40.16003223884945" lon="9.348052091535761"><ele>947.0</ele><time>2026-04-29T11:43:13.884Z</time></trkpt><trkpt lat="40.15989802221674" lon="9.348060930333173"><ele>947.0</ele><time>2026-04-29T11:43:14.884Z</time></trkpt><trkpt lat="40.15976843154561" lon="9.34809307522164"><ele>947.0</ele><time>2026-04-29T11:43:15.884Z</time></trkpt><trkpt lat="40.15964054104928" lon="9.348143987761269"><ele>946.25</ele><time>2026-04-29T11:43:16.884Z</time></trkpt><trkpt lat="40.159512838190665" lon="9.348217453694705"><ele>945.5</ele><time>2026-04-29T11:43:17.884Z</time></trkpt><trkpt lat="40.15938064638334" lon="9.34830310833502"><ele>944.75</ele><time>2026-04-29T11:43:18.884Z</time></trkpt><trkpt lat="40.15924297095794" lon="9.348392768275325"><ele>944.0</ele><time>2026-04-29T11:43:19.885Z</time></trkpt><trkpt lat="40.159098008381264" lon="9.34848432883398"><ele>945.3333333333334</ele><time>2026-04-29T11:43:20.885Z</time></trkpt><trkpt lat="40.158948827469295" lon="9.348578532545663"><ele>946.6666666666667</ele><time>2026-04-29T11:43:21.885Z</time></trkpt><trkpt lat="40.15879516098886" lon="9.348678268387125"><ele>948.0</ele><time>2026-04-29T11:43:22.885Z</time></trkpt><trkpt lat="40.15863687321205" lon="9.348782014673128"><ele>949.3333333333333</ele><time>2026-04-29T11:43:23.885Z</time></trkpt><trkpt lat="40.158478919842786" lon="9.348881632674889"><ele>950.6666666666666</ele><time>2026-04-29T11:43:24.885Z</time></trkpt><trkpt lat="40.1583188369959" lon="9.348981459869105"><ele>952.0</ele><time>2026-04-29T11:43:25.885Z</time></trkpt><trkpt lat="40.158154428006085" lon="9.349079683436443"><ele>953.6666666666666</ele><time>2026-04-29T11:43:26.885Z</time></trkpt><trkpt lat="40.15799094206216" lon="9.349171890109108"><ele>955.3333333333333</ele><time>2026-04-29T11:43:27.885Z</time></trkpt><trkpt lat="40.157830269552655" lon="9.349272427833931"><ele>957.0</ele><time>2026-04-29T11:43:28.885Z</time></trkpt><trkpt lat="40.15767055807954" lon="9.349370721538438"><ele>957.0</ele><time>2026-04-29T11:43:29.885Z</time></trkpt><trkpt lat="40.15751020292574" lon="9.349466505113178"><ele>957.0</ele><time>2026-04-29T11:43:30.885Z</time></trkpt><trkpt lat="40.15735144063171" lon="9.349555010653425"><ele>957.0</ele><time>2026-04-29T11:43:31.885Z</time></trkpt><trkpt lat="40.15719095244434" lon="9.349632251717994"><ele>957.6666666666667</ele><time>2026-04-29T11:43:32.885Z</time></trkpt><trkpt lat="40.15702584689931" lon="9.349694655765505"><ele>958.3333333333334</ele><time>2026-04-29T11:43:33.885Z</time></trkpt><trkpt lat="40.15685569537414" lon="9.349750015042995"><ele>959.0</ele><time>2026-04-29T11:43:34.885Z</time></trkpt><trkpt lat="40.156682862015444" lon="9.349802559198903"><ele>961.6666666666667</ele><time>2026-04-29T11:43:35.885Z</time></trkpt><trkpt lat="40.156508063547" lon="9.3498307599391"><ele>964.3333333333333</ele><time>2026-04-29T11:43:36.885Z</time></trkpt><trkpt lat="40.15633600989206" lon="9.34987976002948"><ele>967.0</ele><time>2026-04-29T11:43:37.885Z</time></trkpt><trkpt lat="40.15616534608447" lon="9.349928364297998"><ele>967.0</ele><time>2026-04-29T11:43:38.885Z</time></trkpt><trkpt lat="40.15599690296032" lon="9.349976008735453"><ele>967.0</ele><time>2026-04-29T11:43:39.885Z</time></trkpt><trkpt lat="40.15582820316805" lon="9.350022445220565"><ele>967.0</ele><time>2026-04-29T11:43:40.885Z</time></trkpt><trkpt lat="40.155659490728866" lon="9.350068313735019"><ele>967.0</ele><time>2026-04-29T11:43:41.884Z</time></trkpt><trkpt lat="40.155493634131986" lon="9.35011379153174"><ele>967.0</ele><time>2026-04-29T11:43:42.884Z</time></trkpt><trkpt lat="40.155348040422375" lon="9.35017815386204"><ele>967.0</ele><time>2026-04-29T11:43:43.884Z</time></trkpt><trkpt lat="40.15521592219557" lon="9.350222732211394"><ele>967.0</ele><time>2026-04-29T11:43:44.884Z</time></trkpt><trkpt lat="40.15510242274423" lon="9.350284108194465"><ele>967.0</ele><time>2026-04-29T11:43:45.883Z</time></trkpt><trkpt lat="40.15500570504696" lon="9.350368204040027"><ele>967.0</ele><time>2026-04-29T11:43:46.883Z</time></trkpt><trkpt lat="40.15491169361817" lon="9.350455848762051"><ele>967.0</ele><time>2026-04-29T11:43:47.884Z</time></trkpt><trkpt lat="40.15485741380682" lon="9.350599147306074"><ele>968.8</ele><time>2026-04-29T11:43:48.884Z</time></trkpt><trkpt lat="40.15479519790698" lon="9.350741505348156"><ele>970.6</ele><time>2026-04-29T11:43:49.884Z</time></trkpt><trkpt lat="40.15473081197126" lon="9.350876529123209"><ele>972.3999999999999</ele><time>2026-04-29T11:43:50.884Z</time></trkpt><trkpt lat="40.15466526146294" lon="9.350976722613293"><ele>974.1999999999999</ele><time>2026-04-29T11:43:51.883Z</time></trkpt><trkpt lat="40.15459437662208" lon="9.351047640399747"><ele>976.0</ele><time>2026-04-29T11:43:52.883Z</time></trkpt><trkpt lat="40.15451107892594" lon="9.351087315151597"><ele>976.0</ele><time>2026-04-29T11:43:53.884Z</time></trkpt><trkpt lat="40.154416455195054" lon="9.35109957147129"><ele>975.9999999999999</ele><time>2026-04-29T11:43:54.884Z</time></trkpt><trkpt lat="40.15431329210555" lon="9.351089397037942"><ele>975.9999999999999</ele><time>2026-04-29T11:43:55.884Z</time></trkpt><trkpt lat="40.15420439977714" lon="9.351044811021406"><ele>976.0</ele><time>2026-04-29T11:43:56.884Z</time></trkpt><trkpt lat="40.15408897774485" lon="9.350983935863287"><ele>976.0</ele><time>2026-04-29T11:43:57.884Z</time></trkpt><trkpt lat="40.15396875343858" lon="9.35089510453831"><ele>978.6666666666666</ele><time>2026-04-29T11:43:58.884Z</time></trkpt><trkpt lat="40.15382774120948" lon="9.350823319372294"><ele>981.3333333333333</ele><time>2026-04-29T11:43:59.884Z</time></trkpt><trkpt lat="40.153680742301326" lon="9.350748426441767"><ele>984.0</ele><time>2026-04-29T11:44:00.884Z</time></trkpt><trkpt lat="40.15352994328706" lon="9.350669634174048"><ele>984.0</ele><time>2026-04-29T11:44:01.884Z</time></trkpt><trkpt lat="40.15337217735864" lon="9.350584359191348"><ele>984.0</ele><time>2026-04-29T11:44:02.884Z</time></trkpt><trkpt lat="40.15320834523517" lon="9.350492315773222"><ele>984.0</ele><time>2026-04-29T11:44:03.884Z</time></trkpt><trkpt lat="40.15303973035408" lon="9.35039052174821"><ele>982.0</ele><time>2026-04-29T11:44:04.884Z</time></trkpt><trkpt lat="40.15287790299021" lon="9.350280380171201"><ele>980.0</ele><time>2026-04-29T11:44:05.884Z</time></trkpt><trkpt lat="40.15272114304711" lon="9.350166047209758"><ele>978.0</ele><time>2026-04-29T11:44:06.884Z</time></trkpt><trkpt lat="40.15256500138562" lon="9.350050788875496"><ele>978.0</ele><time>2026-04-29T11:44:07.884Z</time></trkpt><trkpt lat="40.15240708819582" lon="9.349931860315756"><ele>978.0</ele><time>2026-04-29T11:44:08.884Z</time></trkpt><trkpt lat="40.1522522892709" lon="9.349814829994106"><ele>978.0</ele><time>2026-04-29T11:44:09.884Z</time></trkpt><trkpt lat="40.15209509375767" lon="9.349703338713793"><ele>977.0</ele><time>2026-04-29T11:44:10.884Z</time></trkpt><trkpt lat="40.15193741240701" lon="9.34959973828746"><ele>976.0</ele><time>2026-04-29T11:44:11.884Z</time></trkpt><trkpt lat="40.15177119288418" lon="9.349505802622481"><ele>975.0</ele><time>2026-04-29T11:44:12.884Z</time></trkpt><trkpt lat="40.15160405809008" lon="9.349424370157548"><ele>979.6666666666667</ele><time>2026-04-29T11:44:13.884Z</time></trkpt><trkpt lat="40.15143533795451" lon="9.349351434808344"><ele>984.3333333333334</ele><time>2026-04-29T11:44:14.884Z</time></trkpt><trkpt lat="40.151272439943995" lon="9.349281690834953"><ele>989.0</ele><time>2026-04-29T11:44:15.884Z</time></trkpt><trkpt lat="40.15112245295063" lon="9.349214814543393"><ele>989.0</ele><time>2026-04-29T11:44:16.884Z</time></trkpt><trkpt lat="40.15099101595146" lon="9.349150767762621"><ele>989.0</ele><time>2026-04-29T11:44:17.884Z</time></trkpt><trkpt lat="40.15087886751244" lon="9.349067799584985"><ele>989.0</ele><time>2026-04-29T11:44:18.884Z</time></trkpt><trkpt lat="40.150786222862756" lon="9.348961917248234"><ele>989.0</ele><time>2026-04-29T11:44:19.884Z</time></trkpt><trkpt lat="40.15069543853885" lon="9.348840042298031"><ele>988.0</ele><time>2026-04-29T11:44:20.884Z</time></trkpt><trkpt lat="40.15060778527483" lon="9.348706090281496"><ele>987.0</ele><time>2026-04-29T11:44:21.884Z</time></trkpt><trkpt lat="40.15051661195104" lon="9.348579291377987"><ele>986.0</ele><time>2026-04-29T11:44:22.884Z</time></trkpt><trkpt lat="40.150419247046145" lon="9.348489463390182"><ele>985.0</ele><time>2026-04-29T11:44:23.884Z</time></trkpt><trkpt lat="40.15030719610072" lon="9.348439877230355"><ele>985.0</ele><time>2026-04-29T11:44:24.884Z</time></trkpt><trkpt lat="40.15020299259156" lon="9.348407469479312"><ele>985.0</ele><time>2026-04-29T11:44:25.884Z</time></trkpt><trkpt lat="40.15008246680645" lon="9.348383685810516"><ele>985.0</ele><time>2026-04-29T11:44:26.884Z</time></trkpt><trkpt lat="40.14996886513028" lon="9.348379021161728"><ele>985.0</ele><time>2026-04-29T11:44:27.884Z</time></trkpt><trkpt lat="40.14983508937013" lon="9.348381991071868"><ele>985.25</ele><time>2026-04-29T11:44:28.884Z</time></trkpt><trkpt lat="40.14969054680596" lon="9.34838340708498"><ele>985.5</ele><time>2026-04-29T11:44:29.884Z</time></trkpt><trkpt lat="40.14954328408242" lon="9.348395625651767"><ele>985.75</ele><time>2026-04-29T11:44:30.884Z</time></trkpt><trkpt lat="40.14939271244809" lon="9.348384767435867"><ele>986.0</ele><time>2026-04-29T11:44:31.884Z</time></trkpt><trkpt lat="40.14924195829343" lon="9.348369515171589"><ele>986.0</ele><time>2026-04-29T11:44:32.885Z</time></trkpt><trkpt lat="40.1490813522686" lon="9.34834835619047"><ele>986.0</ele><time>2026-04-29T11:44:33.885Z</time></trkpt><trkpt lat="40.14891928076157" lon="9.348300717405051"><ele>986.0</ele><time>2026-04-29T11:44:34.885Z</time></trkpt><trkpt lat="40.14875382866843" lon="9.34829282735193"><ele>988.6666666666667</ele><time>2026-04-29T11:44:35.885Z</time></trkpt><trkpt lat="40.14859651337425" lon="9.3482414167846"><ele>991.3333333333333</ele><time>2026-04-29T11:44:36.885Z</time></trkpt><trkpt lat="40.14843335585021" lon="9.348208899019072"><ele>994.0</ele><time>2026-04-29T11:44:37.885Z</time></trkpt><trkpt lat="40.14827401396925" lon="9.348195424549484"><ele>994.75</ele><time>2026-04-29T11:44:38.885Z</time></trkpt><trkpt lat="40.148126060450124" lon="9.348125298010569"><ele>995.5</ele><time>2026-04-29T11:44:39.885Z</time></trkpt><trkpt lat="40.14799275670124" lon="9.34806553318324"><ele>996.25</ele><time>2026-04-29T11:44:40.885Z</time></trkpt><trkpt lat="40.14785194784951" lon="9.347997774189324"><ele>997.0</ele><time>2026-04-29T11:44:41.885Z</time></trkpt><trkpt lat="40.14771286769881" lon="9.34792714211725"><ele>992.5</ele><time>2026-04-29T11:44:42.885Z</time></trkpt><trkpt lat="40.147582654803394" lon="9.347873898383599"><ele>988.0</ele><time>2026-04-29T11:44:43.885Z</time></trkpt><trkpt lat="40.14744938559367" lon="9.347831731990036"><ele>983.5</ele><time>2026-04-29T11:44:44.885Z</time></trkpt><trkpt lat="40.147313390489664" lon="9.347807655072808"><ele>979.0</ele><time>2026-04-29T11:44:45.885Z</time></trkpt><trkpt lat="40.147180850236836" lon="9.347802015412894"><ele>978.75</ele><time>2026-04-29T11:44:46.885Z</time></trkpt><trkpt lat="40.147039053974176" lon="9.347824531760134"><ele>978.5</ele><time>2026-04-29T11:44:47.885Z</time></trkpt><trkpt lat="40.146907108576734" lon="9.347854836764842"><ele>978.25</ele><time>2026-04-29T11:44:48.885Z</time></trkpt><trkpt lat="40.146778201513705" lon="9.347913915180232"><ele>978.0</ele><time>2026-04-29T11:44:49.885Z</time></trkpt><trkpt lat="40.14666297224575" lon="9.347975295340024"><ele>980.25</ele><time>2026-04-29T11:44:50.885Z</time></trkpt><trkpt lat="40.14656260351354" lon="9.348050048632876"><ele>982.5</ele><time>2026-04-29T11:44:51.885Z</time></trkpt><trkpt lat="40.146473214239684" lon="9.34814565462141"><ele>984.75</ele><time>2026-04-29T11:44:52.885Z</time></trkpt><trkpt lat="40.146397274927445" lon="9.348266737524996"><ele>987.0</ele><time>2026-04-29T11:44:53.885Z</time></trkpt><trkpt lat="40.14634102926744" lon="9.348420073913347"><ele>987.0</ele><time>2026-04-29T11:44:54.885Z</time></trkpt><trkpt lat="40.14627792938219" lon="9.348574468058473"><ele>987.0</ele><time>2026-04-29T11:44:55.885Z</time></trkpt><trkpt lat="40.146219393278386" lon="9.348742520553431"><ele>987.0</ele><time>2026-04-29T11:44:56.885Z</time></trkpt><trkpt lat="40.14617461753823" lon="9.348929734342217"><ele>987.0</ele><time>2026-04-29T11:44:57.885Z</time></trkpt><trkpt lat="40.1461170293067" lon="9.349117202059771"><ele>989.0</ele><time>2026-04-29T11:44:58.885Z</time></trkpt><trkpt lat="40.14608121877791" lon="9.349308866788872"><ele>991.0</ele><time>2026-04-29T11:44:59.885Z</time></trkpt><trkpt lat="40.14605952702883" lon="9.349499921263286"><ele>993.0</ele><time>2026-04-29T11:45:00.885Z</time></trkpt><trkpt lat="40.14604708588021" lon="9.349701847844452"><ele>992.6666666666667</ele><time>2026-04-29T11:45:01.885Z</time></trkpt><trkpt lat="40.1460190061582" lon="9.349909201081768"><ele>992.3333333333334</ele><time>2026-04-29T11:45:02.885Z</time></trkpt><trkpt lat="40.14598983880526" lon="9.350108677558303"><ele>992.0</ele><time>2026-04-29T11:45:03.885Z</time></trkpt><trkpt lat="40.14596337019035" lon="9.35030002626483"><ele>992.0</ele><time>2026-04-29T11:45:04.885Z</time></trkpt><trkpt lat="40.145935425973335" lon="9.350461236053146"><ele>992.0</ele><time>2026-04-29T11:45:05.885Z</time></trkpt><trkpt lat="40.14590401910909" lon="9.350590425168845"><ele>992.0</ele><time>2026-04-29T11:45:06.885Z</time></trkpt><trkpt lat="40.14585743652873" lon="9.35069549412705"><ele>992.0</ele><time>2026-04-29T11:45:07.885Z</time></trkpt><trkpt lat="40.1457920849774" lon="9.350772393312331"><ele>992.0</ele><time>2026-04-29T11:45:08.885Z</time></trkpt><trkpt lat="40.145713478435" lon="9.350823314699435"><ele>990.0</ele><time>2026-04-29T11:45:09.885Z</time></trkpt><trkpt lat="40.145609366502285" lon="9.350817085754231"><ele>988.0</ele><time>2026-04-29T11:45:10.885Z</time></trkpt><trkpt lat="40.14549344171044" lon="9.3508187332983"><ele>986.0</ele><time>2026-04-29T11:45:11.885Z</time></trkpt><trkpt lat="40.145360287897944" lon="9.350814661238598"><ele>984.0</ele><time>2026-04-29T11:45:12.885Z</time></trkpt><trkpt lat="40.14521449694709" lon="9.35080876399086"><ele>984.0</ele><time>2026-04-29T11:45:13.885Z</time></trkpt><trkpt lat="40.14506055794181" lon="9.350805508294673"><ele>984.0</ele><time>2026-04-29T11:45:14.885Z</time></trkpt><trkpt lat="40.144905609933275" lon="9.350806660101075"><ele>984.0</ele><time>2026-04-29T11:45:15.885Z</time></trkpt><trkpt lat="40.14474128831835" lon="9.350815452024243"><ele>982.0</ele><time>2026-04-29T11:45:16.885Z</time></trkpt><trkpt lat="40.14458276292001" lon="9.350836724816014"><ele>980.0</ele><time>2026-04-29T11:45:17.885Z</time></trkpt><trkpt lat="40.14441995539102" lon="9.350865874300325"><ele>978.0</ele><time>2026-04-29T11:45:18.885Z</time></trkpt><trkpt lat="40.14425917262129" lon="9.350903159761362"><ele>978.0</ele><time>2026-04-29T11:45:19.885Z</time></trkpt><trkpt lat="40.144099329827725" lon="9.350957515113455"><ele>978.0</ele><time>2026-04-29T11:45:20.885Z</time></trkpt><trkpt lat="40.14394087768124" lon="9.35102527983129"><ele>978.0</ele><time>2026-04-29T11:45:21.885Z</time></trkpt><trkpt lat="40.14378914893133" lon="9.351125627041112"><ele>977.0</ele><time>2026-04-29T11:45:22.885Z</time></trkpt><trkpt lat="40.14363049014288" lon="9.351184640456442"><ele>976.0</ele><time>2026-04-29T11:45:23.885Z</time></trkpt><trkpt lat="40.143487017277415" lon="9.351282934646358"><ele>975.0</ele><time>2026-04-29T11:45:24.885Z</time></trkpt><trkpt lat="40.143343224198844" lon="9.351361582409972"><ele>970.5</ele><time>2026-04-29T11:45:25.885Z</time></trkpt><trkpt lat="40.14319472410114" lon="9.351431133313362"><ele>966.0</ele><time>2026-04-29T11:45:26.885Z</time></trkpt><trkpt lat="40.143074048396386" lon="9.35150280038077"><ele>961.5</ele><time>2026-04-29T11:45:27.885Z</time></trkpt><trkpt lat="40.142953352395075" lon="9.351562658472497"><ele>957.0</ele><time>2026-04-29T11:45:28.885Z</time></trkpt><trkpt lat="40.142856377794764" lon="9.351667408659774"><ele>957.0</ele><time>2026-04-29T11:45:29.885Z</time></trkpt><trkpt lat="40.14277977075943" lon="9.351762728845962"><ele>957.0</ele><time>2026-04-29T11:45:30.885Z</time></trkpt><trkpt lat="40.14272836848005" lon="9.351869967574087"><ele>957.0</ele><time>2026-04-29T11:45:31.885Z</time></trkpt><trkpt lat="40.142681191232306" lon="9.35197919951651"><ele>957.0</ele><time>2026-04-29T11:45:32.885Z</time></trkpt><trkpt lat="40.14267740642897" lon="9.35212725366706"><ele>957.0</ele><time>2026-04-29T11:45:33.885Z</time></trkpt><trkpt lat="40.142693330248605" lon="9.352274287914854"><ele>955.75</ele><time>2026-04-29T11:45:34.885Z</time></trkpt><trkpt lat="40.14274571038488" lon="9.352422962419157"><ele>954.5</ele><time>2026-04-29T11:45:35.885Z</time></trkpt><trkpt lat="40.14278236068306" lon="9.352593309715353"><ele>953.25</ele><time>2026-04-29T11:45:36.885Z</time></trkpt><trkpt lat="40.14280747197386" lon="9.35275718899161"><ele>952.0</ele><time>2026-04-29T11:45:37.885Z</time></trkpt><trkpt lat="40.14282106868531" lon="9.352942430026244"><ele>950.3333333333333</ele><time>2026-04-29T11:45:38.885Z</time></trkpt><trkpt lat="40.14282319150462" lon="9.353140109124581"><ele>948.6666666666667</ele><time>2026-04-29T11:45:39.885Z</time></trkpt><trkpt lat="40.14282080961615" lon="9.353342359413062"><ele>947.0</ele><time>2026-04-29T11:45:40.885Z</time></trkpt><trkpt lat="40.142808165006464" lon="9.353539649286123"><ele>947.0</ele><time>2026-04-29T11:45:41.885Z</time></trkpt><trkpt lat="40.14279119423044" lon="9.353725568262433"><ele>947.0</ele><time>2026-04-29T11:45:42.885Z</time></trkpt><trkpt lat="40.14276302066022" lon="9.353904213417614"><ele>947.0</ele><time>2026-04-29T11:45:43.885Z</time></trkpt><trkpt lat="40.14271345153114" lon="9.354079998206466"><ele>947.0</ele><time>2026-04-29T11:45:44.885Z</time></trkpt><trkpt lat="40.142645000318325" lon="9.354254579879278"><ele>947.3333333333334</ele><time>2026-04-29T11:45:45.885Z</time></trkpt><trkpt lat="40.142556835326275" lon="9.354424250427428"><ele>947.6666666666667</ele><time>2026-04-29T11:45:46.885Z</time></trkpt><trkpt lat="40.14245854041604" lon="9.354590383932415"><ele>948.0</ele><time>2026-04-29T11:45:47.883Z</time></trkpt><trkpt lat="40.14235370664401" lon="9.354758178323783"><ele>947.5</ele><time>2026-04-29T11:45:48.883Z</time></trkpt><trkpt lat="40.1422394559445" lon="9.354898143618843"><ele>947.0</ele><time>2026-04-29T11:45:49.883Z</time></trkpt><trkpt lat="40.14214079246556" lon="9.355032226421331"><ele>946.5</ele><time>2026-04-29T11:45:50.884Z</time></trkpt><trkpt lat="40.14204820942497" lon="9.355165828085182"><ele>946.0</ele><time>2026-04-29T11:45:51.884Z</time></trkpt><trkpt lat="40.14197356237156" lon="9.355279867880029"><ele>945.9999999999999</ele><time>2026-04-29T11:45:52.884Z</time></trkpt><trkpt lat="40.14191525154982" lon="9.355372880584278"><ele>946.0</ele><time>2026-04-29T11:45:53.884Z</time></trkpt><trkpt lat="40.14186394829884" lon="9.355471352865598"><ele>946.0</ele><time>2026-04-29T11:45:54.883Z</time></trkpt><trkpt lat="40.14182597845195" lon="9.355572843254354"><ele>946.0</ele><time>2026-04-29T11:45:55.883Z</time></trkpt><trkpt lat="40.1417977925281" lon="9.35566879069948"><ele>945.9999999999999</ele><time>2026-04-29T11:45:56.883Z</time></trkpt><trkpt lat="40.14177797959644" lon="9.355766580696685"><ele>946.0</ele><time>2026-04-29T11:45:57.884Z</time></trkpt><trkpt lat="40.141763118144056" lon="9.355851726894128"><ele>945.8</ele><time>2026-04-29T11:45:58.884Z</time></trkpt><trkpt lat="40.14174968921762" lon="9.355937365286671"><ele>945.5999999999999</ele><time>2026-04-29T11:45:59.883Z</time></trkpt><trkpt lat="40.14173165216382" lon="9.356102007281356"><ele>945.4</ele><time>2026-04-29T11:46:01.883Z</time></trkpt><trkpt lat="40.14172009345038" lon="9.356202579600774"><ele>945.2</ele><time>2026-04-29T11:46:02.883Z</time></trkpt><trkpt lat="40.14170710619723" lon="9.356315581623132"><ele>945.0</ele><time>2026-04-29T11:46:03.883Z</time></trkpt><trkpt lat="40.14169294322811" lon="9.35643881354495"><ele>945.75</ele><time>2026-04-29T11:46:04.883Z</time></trkpt><trkpt lat="40.14168975617615" lon="9.356576793633169"><ele>946.5</ele><time>2026-04-29T11:46:05.883Z</time></trkpt><trkpt lat="40.141675940549256" lon="9.356727340257999"><ele>947.25</ele><time>2026-04-29T11:46:06.883Z</time></trkpt><trkpt lat="40.14165160683369" lon="9.356893904929487"><ele>948.0</ele><time>2026-04-29T11:46:07.883Z</time></trkpt><trkpt lat="40.14163141486073" lon="9.357069433518456"><ele>948.0</ele><time>2026-04-29T11:46:08.883Z</time></trkpt><trkpt lat="40.14160996779846" lon="9.357249972357964"><ele>948.0</ele><time>2026-04-29T11:46:09.883Z</time></trkpt><trkpt lat="40.14158462565163" lon="9.35743710070546"><ele>948.0</ele><time>2026-04-29T11:46:10.883Z</time></trkpt><trkpt lat="40.14155997347134" lon="9.357632599083658"><ele>948.0</ele><time>2026-04-29T11:46:11.883Z</time></trkpt><trkpt lat="40.14153246012049" lon="9.357833024514862"><ele>948.0</ele><time>2026-04-29T11:46:12.883Z</time></trkpt><trkpt lat="40.14150332103217" lon="9.35803419571433"><ele>948.0</ele><time>2026-04-29T11:46:13.883Z</time></trkpt><trkpt lat="40.14147321642107" lon="9.358227655235595"><ele>948.0</ele><time>2026-04-29T11:46:14.883Z</time></trkpt><trkpt lat="40.14143453437271" lon="9.358407320979708"><ele>947.5</ele><time>2026-04-29T11:46:15.883Z</time></trkpt><trkpt lat="40.1413869322514" lon="9.358578084823824"><ele>947.0</ele><time>2026-04-29T11:46:16.883Z</time></trkpt><trkpt lat="40.14132672623565" lon="9.358738605794235"><ele>946.5</ele><time>2026-04-29T11:46:17.883Z</time></trkpt><trkpt lat="40.14124808448818" lon="9.358893796568161"><ele>946.0</ele><time>2026-04-29T11:46:18.883Z</time></trkpt><trkpt lat="40.14115161751256" lon="9.35903881483432"><ele>946.0</ele><time>2026-04-29T11:46:19.883Z</time></trkpt><trkpt lat="40.141032795212176" lon="9.359155120689493"><ele>946.0</ele><time>2026-04-29T11:46:20.883Z</time></trkpt><trkpt lat="40.14092502469951" lon="9.359291993454267"><ele>946.0</ele><time>2026-04-29T11:46:21.883Z</time></trkpt><trkpt lat="40.14081501852519" lon="9.359435010422649"><ele>947.6666666666666</ele><time>2026-04-29T11:46:22.883Z</time></trkpt><trkpt lat="40.14071224152346" lon="9.359595767637103"><ele>949.3333333333333</ele><time>2026-04-29T11:46:23.883Z</time></trkpt><trkpt lat="40.14059779317555" lon="9.359743040241066"><ele>951.0</ele><time>2026-04-29T11:46:24.883Z</time></trkpt><trkpt lat="40.140481449819006" lon="9.359897707914103"><ele>951.0</ele><time>2026-04-29T11:46:25.883Z</time></trkpt><trkpt lat="40.140362785013096" lon="9.36005501712216"><ele>951.0</ele><time>2026-04-29T11:46:26.883Z</time></trkpt><trkpt lat="40.14024403096079" lon="9.360213083089658"><ele>951.0</ele><time>2026-04-29T11:46:27.883Z</time></trkpt><trkpt lat="40.14012188081652" lon="9.360375509247493"><ele>950.3333333333333</ele><time>2026-04-29T11:46:28.883Z</time></trkpt><trkpt lat="40.1400036089776" lon="9.360535188774454"><ele>949.6666666666666</ele><time>2026-04-29T11:46:29.883Z</time></trkpt><trkpt lat="40.13988465929119" lon="9.360691812109982"><ele>949.0</ele><time>2026-04-29T11:46:30.883Z</time></trkpt><trkpt lat="40.1397632298144" lon="9.360853189736146"><ele>952.3333333333333</ele><time>2026-04-29T11:46:31.883Z</time></trkpt><trkpt lat="40.139644617905645" lon="9.360998980162288"><ele>955.6666666666667</ele><time>2026-04-29T11:46:32.883Z</time></trkpt><trkpt lat="40.13952533007528" lon="9.361120249206149"><ele>959.0</ele><time>2026-04-29T11:46:33.883Z</time></trkpt><trkpt lat="40.139404352626244" lon="9.361212238644269"><ele>959.0</ele><time>2026-04-29T11:46:34.883Z</time></trkpt><trkpt lat="40.13928724578907" lon="9.361240418050617"><ele>959.0</ele><time>2026-04-29T11:46:35.883Z</time></trkpt><trkpt lat="40.139185951962766" lon="9.361250096820216"><ele>959.0</ele><time>2026-04-29T11:46:36.883Z</time></trkpt><trkpt lat="40.13907650421929" lon="9.361261496518603"><ele>959.0</ele><time>2026-04-29T11:46:37.883Z</time></trkpt><trkpt lat="40.13895585621758" lon="9.361238319485508"><ele>959.5</ele><time>2026-04-29T11:46:38.883Z</time></trkpt><trkpt lat="40.13883485167745" lon="9.361186109083901"><ele>960.0</ele><time>2026-04-29T11:46:39.883Z</time></trkpt><trkpt lat="40.13869723934362" lon="9.361148011530515"><ele>960.5</ele><time>2026-04-29T11:46:40.884Z</time></trkpt><trkpt lat="40.13855476894392" lon="9.361110910834112"><ele>961.0</ele><time>2026-04-29T11:46:41.884Z</time></trkpt><trkpt lat="40.13840358473121" lon="9.361070889812567"><ele>961.0</ele><time>2026-04-29T11:46:42.884Z</time></trkpt><trkpt lat="40.13824873955029" lon="9.361026236401012"><ele>961.0</ele><time>2026-04-29T11:46:43.884Z</time></trkpt><trkpt lat="40.13808567210794" lon="9.360982192015236"><ele>961.0</ele><time>2026-04-29T11:46:44.884Z</time></trkpt><trkpt lat="40.13791860261532" lon="9.36094288581181"><ele>960.0</ele><time>2026-04-29T11:46:45.884Z</time></trkpt><trkpt lat="40.13775071552716" lon="9.36089930754474"><ele>959.0</ele><time>2026-04-29T11:46:46.884Z</time></trkpt><trkpt lat="40.137581971857756" lon="9.360856265129952"><ele>958.0</ele><time>2026-04-29T11:46:47.884Z</time></trkpt><trkpt lat="40.13740998587169" lon="9.36081502450331"><ele>957.3333333333333</ele><time>2026-04-29T11:46:48.884Z</time></trkpt><trkpt lat="40.13723886464395" lon="9.360771012294732"><ele>956.6666666666667</ele><time>2026-04-29T11:46:49.884Z</time></trkpt><trkpt lat="40.13708023586763" lon="9.360726108260888"><ele>956.0</ele><time>2026-04-29T11:46:50.884Z</time></trkpt><trkpt lat="40.13692865241486" lon="9.360686129388016"><ele>956.0</ele><time>2026-04-29T11:46:51.884Z</time></trkpt><trkpt lat="40.136783155295724" lon="9.360646309285777"><ele>956.0</ele><time>2026-04-29T11:46:52.884Z</time></trkpt><trkpt lat="40.136645619210306" lon="9.360608367791063"><ele>956.0</ele><time>2026-04-29T11:46:53.884Z</time></trkpt><trkpt lat="40.13651817279783" lon="9.360575319252147"><ele>956.0</ele><time>2026-04-29T11:46:54.884Z</time></trkpt><trkpt lat="40.13640129766303" lon="9.360546305071376"><ele>956.5999999999999</ele><time>2026-04-29T11:46:55.884Z</time></trkpt><trkpt lat="40.1362923702156" lon="9.360518885156292"><ele>957.1999999999999</ele><time>2026-04-29T11:46:56.884Z</time></trkpt><trkpt lat="40.13619332759085" lon="9.360475741529564"><ele>957.8000000000001</ele><time>2026-04-29T11:46:57.884Z</time></trkpt><trkpt lat="40.1361013163276" lon="9.360452089403113"><ele>958.4000000000001</ele><time>2026-04-29T11:46:58.884Z</time></trkpt><trkpt lat="40.13602654516241" lon="9.3604335374427"><ele>959.0</ele><time>2026-04-29T11:46:59.884Z</time></trkpt><trkpt lat="40.135933990126105" lon="9.36040912419533"><ele>959.0000000000001</ele><time>2026-04-29T11:47:01.884Z</time></trkpt><trkpt lat="40.13587058699388" lon="9.360378397235166"><ele>959.0</ele><time>2026-04-29T11:47:04.884Z</time></trkpt><trkpt lat="40.135793789689764" lon="9.360386463751764"><ele>959.0</ele><time>2026-04-29T11:47:08.884Z</time></trkpt><trkpt lat="40.135730051886696" lon="9.360359775622994"><ele>959.0</ele><time>2026-04-29T11:49:17.884Z</time></trkpt><trkpt lat="40.13563750888041" lon="9.360372002877481"><ele>959.0000000000001</ele><time>2026-04-29T11:49:19.884Z</time></trkpt><trkpt lat="40.135503640697664" lon="9.360358902661595"><ele>959.0</ele><time>2026-04-29T11:49:21.884Z</time></trkpt><trkpt lat="40.135418699198155" lon="9.360368183889703"><ele>959.2</ele><time>2026-04-29T11:49:22.884Z</time></trkpt><trkpt lat="40.13533173807819" lon="9.360362950019063"><ele>959.4000000000001</ele><time>2026-04-29T11:49:23.884Z</time></trkpt><trkpt lat="40.135237319747056" lon="9.360361052870381"><ele>959.6</ele><time>2026-04-29T11:49:24.884Z</time></trkpt><trkpt lat="40.13513730955798" lon="9.360356167464955"><ele>959.8</ele><time>2026-04-29T11:49:25.884Z</time></trkpt><trkpt lat="40.13502426176138" lon="9.360351357445188"><ele>960.0</ele><time>2026-04-29T11:49:26.884Z</time></trkpt><trkpt lat="40.13490960602264" lon="9.360349446104506"><ele>960.25</ele><time>2026-04-29T11:49:27.884Z</time></trkpt><trkpt lat="40.13479142175149" lon="9.360334755622981"><ele>960.5</ele><time>2026-04-29T11:49:28.884Z</time></trkpt><trkpt lat="40.13467032048172" lon="9.360337465553979"><ele>960.75</ele><time>2026-04-29T11:49:29.884Z</time></trkpt><trkpt lat="40.13454617484044" lon="9.360343276052447"><ele>961.0</ele><time>2026-04-29T11:49:30.884Z</time></trkpt><trkpt lat="40.13442044764145" lon="9.360350655401035"><ele>961.0</ele><time>2026-04-29T11:49:31.884Z</time></trkpt><trkpt lat="40.134300724826794" lon="9.36035467647498"><ele>961.0</ele><time>2026-04-29T11:49:32.884Z</time></trkpt><trkpt lat="40.134186038805325" lon="9.360393649149643"><ele>961.0</ele><time>2026-04-29T11:49:33.884Z</time></trkpt><trkpt lat="40.13406671894303" lon="9.360427359167863"><ele>961.0</ele><time>2026-04-29T11:49:34.884Z</time></trkpt><trkpt lat="40.13395342410705" lon="9.36050264881841"><ele>961.5</ele><time>2026-04-29T11:49:35.884Z</time></trkpt><trkpt lat="40.13384552237721" lon="9.360604915357245"><ele>962.0</ele><time>2026-04-29T11:49:36.884Z</time></trkpt><trkpt lat="40.13374945699828" lon="9.360736303606318"><ele>962.5</ele><time>2026-04-29T11:49:37.884Z</time></trkpt><trkpt lat="40.133633058046904" lon="9.360857256139289"><ele>963.0</ele><time>2026-04-29T11:49:38.884Z</time></trkpt><trkpt lat="40.13352306254984" lon="9.36099482593133"><ele>963.0</ele><time>2026-04-29T11:49:39.884Z</time></trkpt><trkpt lat="40.13339977307364" lon="9.361114104273081"><ele>963.0</ele><time>2026-04-29T11:49:40.884Z</time></trkpt><trkpt lat="40.13329907064338" lon="9.361264205159127"><ele>963.0</ele><time>2026-04-29T11:49:41.884Z</time></trkpt><trkpt lat="40.13318597201494" lon="9.361401552335018"><ele>965.0</ele><time>2026-04-29T11:49:42.884Z</time></trkpt><trkpt lat="40.133074767466425" lon="9.361541725050198"><ele>967.0</ele><time>2026-04-29T11:49:43.884Z</time></trkpt><trkpt lat="40.132953855321006" lon="9.361651660506306"><ele>969.0</ele><time>2026-04-29T11:49:44.884Z</time></trkpt><trkpt lat="40.132843313104914" lon="9.361772441237616"><ele>971.0</ele><time>2026-04-29T11:49:45.884Z</time></trkpt><trkpt lat="40.13274447042844" lon="9.36189028174112"><ele>971.0</ele><time>2026-04-29T11:49:46.884Z</time></trkpt><trkpt lat="40.13266293220137" lon="9.362012910738265"><ele>971.0</ele><time>2026-04-29T11:49:47.884Z</time></trkpt><trkpt lat="40.13259799701459" lon="9.362131831065678"><ele>971.0</ele><time>2026-04-29T11:49:48.884Z</time></trkpt><trkpt lat="40.13255175547678" lon="9.362259933084701"><ele>971.0</ele><time>2026-04-29T11:49:49.884Z</time></trkpt><trkpt lat="40.132534011290716" lon="9.362401200045335"><ele>970.0</ele><time>2026-04-29T11:49:50.884Z</time></trkpt><trkpt lat="40.13254202682387" lon="9.362552147454963"><ele>969.0</ele><time>2026-04-29T11:49:51.884Z</time></trkpt><trkpt lat="40.132570844937725" lon="9.362709887486607"><ele>968.0</ele><time>2026-04-29T11:49:52.884Z</time></trkpt><trkpt lat="40.132606922215324" lon="9.362873692355967"><ele>967.0</ele><time>2026-04-29T11:49:53.884Z</time></trkpt><trkpt lat="40.132660259941545" lon="9.363037655267428"><ele>967.0</ele><time>2026-04-29T11:49:54.884Z</time></trkpt><trkpt lat="40.13269571287436" lon="9.363211268760345"><ele>967.0</ele><time>2026-04-29T11:49:55.884Z</time></trkpt><trkpt lat="40.13273604179069" lon="9.363395211378462"><ele>967.0</ele><time>2026-04-29T11:49:56.884Z</time></trkpt><trkpt lat="40.13277731094914" lon="9.363587193373554"><ele>967.0</ele><time>2026-04-29T11:49:57.884Z</time></trkpt><trkpt lat="40.13281669470948" lon="9.363776698735885"><ele>968.25</ele><time>2026-04-29T11:49:58.884Z</time></trkpt><trkpt lat="40.132853038110575" lon="9.36395530502919"><ele>969.5</ele><time>2026-04-29T11:49:59.884Z</time></trkpt><trkpt lat="40.132882679034616" lon="9.364116072001362"><ele>970.75</ele><time>2026-04-29T11:50:00.883Z</time></trkpt><trkpt lat="40.13290086367119" lon="9.364267334980807"><ele>972.0</ele><time>2026-04-29T11:50:01.883Z</time></trkpt><trkpt lat="40.13290712359114" lon="9.36441887882096"><ele>972.0</ele><time>2026-04-29T11:50:02.883Z</time></trkpt><trkpt lat="40.1328987064077" lon="9.364575346730689"><ele>972.0</ele><time>2026-04-29T11:50:03.883Z</time></trkpt><trkpt lat="40.13287193882626" lon="9.364738658328971"><ele>972.0</ele><time>2026-04-29T11:50:04.883Z</time></trkpt><trkpt lat="40.13283366659069" lon="9.364908897414553"><ele>972.0</ele><time>2026-04-29T11:50:05.884Z</time></trkpt><trkpt lat="40.1327869936951" lon="9.365084345718607"><ele>971.5</ele><time>2026-04-29T11:50:06.884Z</time></trkpt><trkpt lat="40.13273610049238" lon="9.36526325533101"><ele>971.0</ele><time>2026-04-29T11:50:07.884Z</time></trkpt><trkpt lat="40.13268635735913" lon="9.365435892146737"><ele>970.5</ele><time>2026-04-29T11:50:08.884Z</time></trkpt><trkpt lat="40.132638948044765" lon="9.36560200936297"><ele>970.0</ele><time>2026-04-29T11:50:09.883Z</time></trkpt><trkpt lat="40.13259285098366" lon="9.3657639180646"><ele>968.75</ele><time>2026-04-29T11:50:10.883Z</time></trkpt><trkpt lat="40.132550537715495" lon="9.36591744628221"><ele>967.5</ele><time>2026-04-29T11:50:11.883Z</time></trkpt><trkpt lat="40.132509750927284" lon="9.366065232236332"><ele>966.25</ele><time>2026-04-29T11:50:12.883Z</time></trkpt><trkpt lat="40.1324680981142" lon="9.366220771201203"><ele>965.0</ele><time>2026-04-29T11:50:13.883Z</time></trkpt><trkpt lat="40.13242496534313" lon="9.36638458986649"><ele>967.5</ele><time>2026-04-29T11:50:14.883Z</time></trkpt><trkpt lat="40.1323798255887" lon="9.366551356274513"><ele>970.0</ele><time>2026-04-29T11:50:15.883Z</time></trkpt><trkpt lat="40.13233484245376" lon="9.366723305704847"><ele>972.5</ele><time>2026-04-29T11:50:16.883Z</time></trkpt><trkpt lat="40.1322909114728" lon="9.36690277583701"><ele>975.0</ele><time>2026-04-29T11:50:17.883Z</time></trkpt><trkpt lat="40.132247809930334" lon="9.367087827825369"><ele>975.6666666666667</ele><time>2026-04-29T11:50:18.883Z</time></trkpt><trkpt lat="40.13220328474216" lon="9.367276613494237"><ele>976.3333333333334</ele><time>2026-04-29T11:50:19.883Z</time></trkpt><trkpt lat="40.132137425125784" lon="9.36746155776427"><ele>977.0</ele><time>2026-04-29T11:50:20.883Z</time></trkpt><trkpt lat="40.13208571645142" lon="9.367656586896059"><ele>977.0</ele><time>2026-04-29T11:50:21.883Z</time></trkpt><trkpt lat="40.132034832618885" lon="9.367852330756978"><ele>977.0</ele><time>2026-04-29T11:50:22.883Z</time></trkpt><trkpt lat="40.13198397222856" lon="9.368048119794956"><ele>977.0</ele><time>2026-04-29T11:50:23.883Z</time></trkpt><trkpt lat="40.131933238345894" lon="9.3682443051753"><ele>976.6666666666667</ele><time>2026-04-29T11:50:24.883Z</time></trkpt><trkpt lat="40.1318819599786" lon="9.368442596086814"><ele>976.3333333333333</ele><time>2026-04-29T11:50:25.883Z</time></trkpt><trkpt lat="40.13184336725512" lon="9.368644192180389"><ele>976.0</ele><time>2026-04-29T11:50:26.883Z</time></trkpt><trkpt lat="40.13179072631953" lon="9.368839695921402"><ele>974.6666666666666</ele><time>2026-04-29T11:50:27.883Z</time></trkpt><trkpt lat="40.131736118796354" lon="9.369032875372968"><ele>973.3333333333333</ele><time>2026-04-29T11:50:28.883Z</time></trkpt><trkpt lat="40.13168243140778" lon="9.369224393060316"><ele>972.0</ele><time>2026-04-29T11:50:29.883Z</time></trkpt><trkpt lat="40.1316246642925" lon="9.369415195474518"><ele>972.0</ele><time>2026-04-29T11:50:30.883Z</time></trkpt><trkpt lat="40.131562148783004" lon="9.369607336587045"><ele>972.0</ele><time>2026-04-29T11:50:31.883Z</time></trkpt><trkpt lat="40.13149633079172" lon="9.369802370759865"><ele>972.0</ele><time>2026-04-29T11:50:32.883Z</time></trkpt><trkpt lat="40.13142760549865" lon="9.370000933059387"><ele>975.0</ele><time>2026-04-29T11:50:33.883Z</time></trkpt><trkpt lat="40.13135498603123" lon="9.370199075735567"><ele>978.0</ele><time>2026-04-29T11:50:34.883Z</time></trkpt><trkpt lat="40.1312841737095" lon="9.370397702920815"><ele>981.0</ele><time>2026-04-29T11:50:35.883Z</time></trkpt><trkpt lat="40.13121197642456" lon="9.370601515692323"><ele>981.0</ele><time>2026-04-29T11:50:36.883Z</time></trkpt><trkpt lat="40.13114097867005" lon="9.370804020666935"><ele>981.0</ele><time>2026-04-29T11:50:37.883Z</time></trkpt><trkpt lat="40.13106927812504" lon="9.37100750483863"><ele>981.0</ele><time>2026-04-29T11:50:38.883Z</time></trkpt><trkpt lat="40.130998808429474" lon="9.371209868656546"><ele>979.3333333333333</ele><time>2026-04-29T11:50:39.883Z</time></trkpt><trkpt lat="40.13093183254697" lon="9.371414010109508"><ele>977.6666666666666</ele><time>2026-04-29T11:50:40.883Z</time></trkpt><trkpt lat="40.13086882319848" lon="9.371620208986455"><ele>976.0</ele><time>2026-04-29T11:50:41.883Z</time></trkpt><trkpt lat="40.1308170331942" lon="9.371836418040282"><ele>976.0</ele><time>2026-04-29T11:50:42.883Z</time></trkpt><trkpt lat="40.130775389341125" lon="9.372059939811225"><ele>976.0</ele><time>2026-04-29T11:50:43.883Z</time></trkpt><trkpt lat="40.13073748007256" lon="9.372283209160885"><ele>976.0</ele><time>2026-04-29T11:50:44.883Z</time></trkpt><trkpt lat="40.13070637875131" lon="9.372515688795664"><ele>979.6666666666666</ele><time>2026-04-29T11:50:45.883Z</time></trkpt><trkpt lat="40.130672509495646" lon="9.372750641080241"><ele>983.3333333333333</ele><time>2026-04-29T11:50:46.883Z</time></trkpt><trkpt lat="40.1306411815278" lon="9.372987898873484"><ele>987.0</ele><time>2026-04-29T11:50:47.883Z</time></trkpt><trkpt lat="40.130607007393024" lon="9.373224936256754"><ele>987.0</ele><time>2026-04-29T11:50:48.883Z</time></trkpt><trkpt lat="40.13057097654337" lon="9.373455953281034"><ele>987.0</ele><time>2026-04-29T11:50:49.883Z</time></trkpt><trkpt lat="40.13054024040257" lon="9.373667529464601"><ele>987.0</ele><time>2026-04-29T11:50:50.883Z</time></trkpt><trkpt lat="40.13051370632263" lon="9.373868123505186"><ele>986.0</ele><time>2026-04-29T11:50:51.883Z</time></trkpt><trkpt lat="40.13049210401406" lon="9.374062479773974"><ele>985.0</ele><time>2026-04-29T11:50:52.883Z</time></trkpt><trkpt lat="40.13048559557595" lon="9.3742464698568"><ele>984.0</ele><time>2026-04-29T11:50:53.883Z</time></trkpt><trkpt lat="40.13049833189805" lon="9.374427919484434"><ele>983.0</ele><time>2026-04-29T11:50:54.883Z</time></trkpt><trkpt lat="40.13053488268024" lon="9.374610892186585"><ele>982.0</ele><time>2026-04-29T11:50:55.883Z</time></trkpt><trkpt lat="40.13058350939136" lon="9.374799116527893"><ele>981.0</ele><time>2026-04-29T11:50:56.883Z</time></trkpt><trkpt lat="40.13063535881744" lon="9.37499111503942"><ele>980.0</ele><time>2026-04-29T11:50:57.883Z</time></trkpt><trkpt lat="40.13068945173448" lon="9.375194351218592"><ele>978.0</ele><time>2026-04-29T11:50:58.883Z</time></trkpt><trkpt lat="40.13074304484489" lon="9.375409638890742"><ele>976.0</ele><time>2026-04-29T11:50:59.883Z</time></trkpt><trkpt lat="40.130800612097566" lon="9.375632044454317"><ele>974.0</ele><time>2026-04-29T11:51:00.883Z</time></trkpt><trkpt lat="40.13086076146128" lon="9.375853029007153"><ele>974.0</ele><time>2026-04-29T11:51:01.883Z</time></trkpt><trkpt lat="40.130914519088364" lon="9.376067416389644"><ele>974.0</ele><time>2026-04-29T11:51:02.883Z</time></trkpt><trkpt lat="40.13096537291595" lon="9.376275313703776"><ele>974.0</ele><time>2026-04-29T11:51:03.883Z</time></trkpt><trkpt lat="40.13102201289475" lon="9.376483346245006"><ele>975.0</ele><time>2026-04-29T11:51:04.883Z</time></trkpt><trkpt lat="40.13107871165391" lon="9.376693294563369"><ele>976.0</ele><time>2026-04-29T11:51:05.883Z</time></trkpt><trkpt lat="40.13113643527129" lon="9.376906447161842"><ele>977.0</ele><time>2026-04-29T11:51:06.883Z</time></trkpt><trkpt lat="40.131193086359296" lon="9.377124102862155"><ele>977.3333333333334</ele><time>2026-04-29T11:51:07.883Z</time></trkpt><trkpt lat="40.131247736175816" lon="9.377345720314475"><ele>977.6666666666667</ele><time>2026-04-29T11:51:08.883Z</time></trkpt><trkpt lat="40.131303769425855" lon="9.377563388346372"><ele>978.0</ele><time>2026-04-29T11:51:09.883Z</time></trkpt><trkpt lat="40.13136279509856" lon="9.37778440687637"><ele>978.0</ele><time>2026-04-29T11:51:10.884Z</time></trkpt><trkpt lat="40.13141884034033" lon="9.378009775407241"><ele>978.0</ele><time>2026-04-29T11:51:11.884Z</time></trkpt><trkpt lat="40.1314749336574" lon="9.378232846272663"><ele>978.0</ele><time>2026-04-29T11:51:12.884Z</time></trkpt><trkpt lat="40.131533074345484" lon="9.378463218887543"><ele>976.6666666666667</ele><time>2026-04-29T11:51:13.884Z</time></trkpt><trkpt lat="40.131590204877014" lon="9.37869357926791"><ele>975.3333333333334</ele><time>2026-04-29T11:51:14.884Z</time></trkpt><trkpt lat="40.13164797024815" lon="9.378920517075228"><ele>974.0</ele><time>2026-04-29T11:51:15.884Z</time></trkpt><trkpt lat="40.131707865311284" lon="9.379137456171998"><ele>973.6666666666667</ele><time>2026-04-29T11:51:16.884Z</time></trkpt><trkpt lat="40.13177072006034" lon="9.37934890266605"><ele>973.3333333333333</ele><time>2026-04-29T11:51:17.884Z</time></trkpt><trkpt lat="40.131824532547896" lon="9.37954478728835"><ele>973.0</ele><time>2026-04-29T11:51:18.884Z</time></trkpt><trkpt lat="40.13186993319344" lon="9.379729983500399"><ele>974.0</ele><time>2026-04-29T11:51:19.884Z</time></trkpt><trkpt lat="40.13189994396219" lon="9.37990337197009"><ele>975.0</ele><time>2026-04-29T11:51:20.884Z</time></trkpt><trkpt lat="40.13191046715551" lon="9.38005234858962"><ele>976.0</ele><time>2026-04-29T11:51:21.884Z</time></trkpt><trkpt lat="40.13190164266457" lon="9.380187794551562"><ele>977.0</ele><time>2026-04-29T11:51:22.884Z</time></trkpt><trkpt lat="40.13187463355631" lon="9.380317888795005"><ele>977.0</ele><time>2026-04-29T11:51:23.884Z</time></trkpt><trkpt lat="40.13182482729147" lon="9.380441078122358"><ele>977.0</ele><time>2026-04-29T11:51:24.884Z</time></trkpt><trkpt lat="40.13175680522545" lon="9.380554055408746"><ele>977.0</ele><time>2026-04-29T11:51:25.884Z</time></trkpt><trkpt lat="40.13167089675356" lon="9.380673893417246"><ele>977.0</ele><time>2026-04-29T11:51:26.884Z</time></trkpt><trkpt lat="40.131580394368356" lon="9.380799492846066"><ele>979.0</ele><time>2026-04-29T11:51:27.884Z</time></trkpt><trkpt lat="40.131480459859795" lon="9.380934458358015"><ele>981.0</ele><time>2026-04-29T11:51:28.884Z</time></trkpt><trkpt lat="40.131376732196216" lon="9.381081990830452"><ele>983.0</ele><time>2026-04-29T11:51:29.884Z</time></trkpt><trkpt lat="40.1312638191601" lon="9.38123390312681"><ele>983.6666666666667</ele><time>2026-04-29T11:51:30.884Z</time></trkpt><trkpt lat="40.13114622406915" lon="9.381391247744729"><ele>984.3333333333333</ele><time>2026-04-29T11:51:31.884Z</time></trkpt><trkpt lat="40.13103385364359" lon="9.381546831803865"><ele>985.0</ele><time>2026-04-29T11:51:32.884Z</time></trkpt><trkpt lat="40.13092252782406" lon="9.381707471691886"><ele>985.0</ele><time>2026-04-29T11:51:33.884Z</time></trkpt><trkpt lat="40.130815867867824" lon="9.381869792230155"><ele>985.0</ele><time>2026-04-29T11:51:34.884Z</time></trkpt><trkpt lat="40.13069666129149" lon="9.382043852686287"><ele>985.0</ele><time>2026-04-29T11:51:35.884Z</time></trkpt><trkpt lat="40.1305841503281" lon="9.382227567774049"><ele>986.6666666666666</ele><time>2026-04-29T11:51:36.884Z</time></trkpt><trkpt lat="40.13047255295831" lon="9.38241601883635"><ele>988.3333333333333</ele><time>2026-04-29T11:51:37.884Z</time></trkpt><trkpt lat="40.130370379162734" lon="9.3826119111645"><ele>990.0</ele><time>2026-04-29T11:51:38.884Z</time></trkpt><trkpt lat="40.13027382979952" lon="9.38281286905507"><ele>990.0</ele><time>2026-04-29T11:51:39.884Z</time></trkpt><trkpt lat="40.130179113277386" lon="9.383011823272033"><ele>990.0</ele><time>2026-04-29T11:51:40.884Z</time></trkpt><trkpt lat="40.1300857639968" lon="9.383209597113227"><ele>990.0</ele><time>2026-04-29T11:51:41.884Z</time></trkpt><trkpt lat="40.129991276167594" lon="9.383399006498852"><ele>990.0</ele><time>2026-04-29T11:51:42.884Z</time></trkpt><trkpt lat="40.12989918605949" lon="9.383588311512828"><ele>990.0</ele><time>2026-04-29T11:51:43.884Z</time></trkpt><trkpt lat="40.12980093639988" lon="9.383781254956364"><ele>990.0</ele><time>2026-04-29T11:51:44.884Z</time></trkpt><trkpt lat="40.12971449753379" lon="9.383967863776633"><ele>993.6666666666667</ele><time>2026-04-29T11:51:45.884Z</time></trkpt><trkpt lat="40.129629146491496" lon="9.384151734613598"><ele>997.3333333333334</ele><time>2026-04-29T11:51:46.884Z</time></trkpt><trkpt lat="40.12956049266643" lon="9.384327887465579"><ele>1001.0</ele><time>2026-04-29T11:51:47.884Z</time></trkpt><trkpt lat="40.12951423695593" lon="9.384526282176404"><ele>1000.3333333333334</ele><time>2026-04-29T11:51:48.884Z</time></trkpt><trkpt lat="40.12949600508093" lon="9.384725252802948"><ele>999.6666666666667</ele><time>2026-04-29T11:51:49.884Z</time></trkpt><trkpt lat="40.129495215713966" lon="9.384930848416435"><ele>999.0</ele><time>2026-04-29T11:51:50.884Z</time></trkpt><trkpt lat="40.129509618115954" lon="9.385136668752516"><ele>999.0</ele><time>2026-04-29T11:51:51.884Z</time></trkpt><trkpt lat="40.12952393356399" lon="9.385358140956026"><ele>999.0</ele><time>2026-04-29T11:51:52.884Z</time></trkpt><trkpt lat="40.12954036771558" lon="9.385579906522384"><ele>999.0</ele><time>2026-04-29T11:51:53.884Z</time></trkpt><trkpt lat="40.12955744727528" lon="9.385805155019494"><ele>998.0</ele><time>2026-04-29T11:51:54.884Z</time></trkpt><trkpt lat="40.129579394992675" lon="9.386036459643227"><ele>997.0</ele><time>2026-04-29T11:51:55.884Z</time></trkpt><trkpt lat="40.129603770884735" lon="9.386267800704816"><ele>996.0</ele><time>2026-04-29T11:51:56.884Z</time></trkpt><trkpt lat="40.129627640958375" lon="9.386505488337457"><ele>995.6666666666667</ele><time>2026-04-29T11:51:57.884Z</time></trkpt><trkpt lat="40.129651695953555" lon="9.386753383750746"><ele>995.3333333333334</ele><time>2026-04-29T11:51:58.884Z</time></trkpt><trkpt lat="40.12968105562022" lon="9.387005158195485"><ele>995.0</ele><time>2026-04-29T11:51:59.884Z</time></trkpt><trkpt lat="40.12970083978885" lon="9.387257299935277"><ele>998.6666666666667</ele><time>2026-04-29T11:52:00.884Z</time></trkpt><trkpt lat="40.129721762217706" lon="9.387507114196305"><ele>1002.3333333333333</ele><time>2026-04-29T11:52:01.884Z</time></trkpt><trkpt lat="40.129742457443335" lon="9.387753779386195"><ele>1006.0</ele><time>2026-04-29T11:52:02.884Z</time></trkpt><trkpt lat="40.12976128940847" lon="9.38800497085458"><ele>1007.3333333333333</ele><time>2026-04-29T11:52:03.884Z</time></trkpt><trkpt lat="40.129784872390914" lon="9.388263084788294"><ele>1008.6666666666667</ele><time>2026-04-29T11:52:04.884Z</time></trkpt><trkpt lat="40.12980772087479" lon="9.388518881528784"><ele>1010.0</ele><time>2026-04-29T11:52:05.883Z</time></trkpt><trkpt lat="40.12983311553397" lon="9.388778844819674"><ele>1010.3333333333334</ele><time>2026-04-29T11:52:06.883Z</time></trkpt><trkpt lat="40.129852004496044" lon="9.389038961212764"><ele>1010.6666666666667</ele><time>2026-04-29T11:52:07.883Z</time></trkpt><trkpt lat="40.129869089130985" lon="9.389300830058335"><ele>1011.0</ele><time>2026-04-29T11:52:08.883Z</time></trkpt><trkpt lat="40.12989488760822" lon="9.389553942249195"><ele>1009.0</ele><time>2026-04-29T11:52:09.883Z</time></trkpt><trkpt lat="40.12991830257083" lon="9.389807138452545"><ele>1007.0</ele><time>2026-04-29T11:52:10.883Z</time></trkpt><trkpt lat="40.12993985807235" lon="9.390051430053672"><ele>1005.0</ele><time>2026-04-29T11:52:11.883Z</time></trkpt><trkpt lat="40.129966688806896" lon="9.390287790709873"><ele>1005.6666666666667</ele><time>2026-04-29T11:52:12.883Z</time></trkpt><trkpt lat="40.12999689126057" lon="9.390528233729018"><ele>1006.3333333333334</ele><time>2026-04-29T11:52:13.883Z</time></trkpt><trkpt lat="40.13004309980342" lon="9.390750101894765"><ele>1007.0</ele><time>2026-04-29T11:52:14.883Z</time></trkpt><trkpt lat="40.13009222833093" lon="9.390974089118076"><ele>1007.0</ele><time>2026-04-29T11:52:15.883Z</time></trkpt><trkpt lat="40.130145343889446" lon="9.391200514745869"><ele>1007.0</ele><time>2026-04-29T11:52:16.883Z</time></trkpt><trkpt lat="40.130210267946026" lon="9.391431926404431"><ele>1007.0</ele><time>2026-04-29T11:52:17.882Z</time></trkpt><trkpt lat="40.13026993804283" lon="9.3916705461227"><ele>1008.6666666666667</ele><time>2026-04-29T11:52:18.883Z</time></trkpt><trkpt lat="40.130331068216066" lon="9.391904896100934"><ele>1010.3333333333333</ele><time>2026-04-29T11:52:19.883Z</time></trkpt><trkpt lat="40.13039061084235" lon="9.392143725641724"><ele>1012.0</ele><time>2026-04-29T11:52:20.883Z</time></trkpt><trkpt lat="40.13045932994633" lon="9.392384270470226"><ele>1014.0</ele><time>2026-04-29T11:52:21.883Z</time></trkpt><trkpt lat="40.1305400240359" lon="9.392627125367953"><ele>1016.0</ele><time>2026-04-29T11:52:22.883Z</time></trkpt><trkpt lat="40.13061326144878" lon="9.392869352531106"><ele>1018.0</ele><time>2026-04-29T11:52:23.883Z</time></trkpt><trkpt lat="40.1306951690237" lon="9.393106740095341"><ele>1015.3333333333333</ele><time>2026-04-29T11:52:24.883Z</time></trkpt><trkpt lat="40.130766400151515" lon="9.39333079797551"><ele>1012.6666666666667</ele><time>2026-04-29T11:52:25.883Z</time></trkpt><trkpt lat="40.13082692027624" lon="9.393539797276743"><ele>1010.0</ele><time>2026-04-29T11:52:26.883Z</time></trkpt><trkpt lat="40.130875570246324" lon="9.393730251332315"><ele>1012.5</ele><time>2026-04-29T11:52:27.883Z</time></trkpt><trkpt lat="40.13090911293107" lon="9.393903318500694"><ele>1015.0</ele><time>2026-04-29T11:52:28.883Z</time></trkpt><trkpt lat="40.130927945095216" lon="9.394073905652922"><ele>1017.5</ele><time>2026-04-29T11:52:29.883Z</time></trkpt><trkpt lat="40.13092340685431" lon="9.394241397531571"><ele>1020.0</ele><time>2026-04-29T11:52:30.883Z</time></trkpt><trkpt lat="40.13089487969861" lon="9.39440463965969"><ele>1020.0</ele><time>2026-04-29T11:52:31.883Z</time></trkpt><trkpt lat="40.13085428015313" lon="9.3945637750072"><ele>1020.0</ele><time>2026-04-29T11:52:32.883Z</time></trkpt><trkpt lat="40.13080182916427" lon="9.394726671920454"><ele>1020.0</ele><time>2026-04-29T11:52:33.883Z</time></trkpt><trkpt lat="40.130736171260494" lon="9.394885863000114"><ele>1020.0</ele><time>2026-04-29T11:52:34.883Z</time></trkpt><trkpt lat="40.13066446495316" lon="9.395050940245817"><ele>1020.75</ele><time>2026-04-29T11:52:35.883Z</time></trkpt><trkpt lat="40.130586033570616" lon="9.39521013019037"><ele>1021.5</ele><time>2026-04-29T11:52:36.883Z</time></trkpt><trkpt lat="40.13051186605359" lon="9.395349822544045"><ele>1022.25</ele><time>2026-04-29T11:52:37.883Z</time></trkpt><trkpt lat="40.13044624691477" lon="9.395458585412293"><ele>1023.0</ele><time>2026-04-29T11:52:38.883Z</time></trkpt><trkpt lat="40.13038120992616" lon="9.395529677071723"><ele>1023.0</ele><time>2026-04-29T11:52:39.883Z</time></trkpt><trkpt lat="40.13031812960241" lon="9.395565347074081"><ele>1023.0</ele><time>2026-04-29T11:52:40.883Z</time></trkpt><trkpt lat="40.130236147149574" lon="9.395561808007512"><ele>1023.0</ele><time>2026-04-29T11:52:41.883Z</time></trkpt><trkpt lat="40.130145932175466" lon="9.395528381367733"><ele>1023.0</ele><time>2026-04-29T11:52:42.883Z</time></trkpt><trkpt lat="40.13004673062954" lon="9.395481634696957"><ele>1023.0</ele><time>2026-04-29T11:52:43.883Z</time></trkpt><trkpt lat="40.12993758566409" lon="9.395439785791348"><ele>1024.0</ele><time>2026-04-29T11:52:44.883Z</time></trkpt><trkpt lat="40.129819481786846" lon="9.395424275592667"><ele>1025.0</ele><time>2026-04-29T11:52:45.883Z</time></trkpt><trkpt lat="40.12969974319954" lon="9.395435500406625"><ele>1026.0</ele><time>2026-04-29T11:52:46.883Z</time></trkpt><trkpt lat="40.129583459509604" lon="9.395455635115011"><ele>1027.0</ele><time>2026-04-29T11:52:47.883Z</time></trkpt><trkpt lat="40.129476758798845" lon="9.395474493683507"><ele>1027.0</ele><time>2026-04-29T11:52:48.883Z</time></trkpt><trkpt lat="40.12937316247103" lon="9.395483556105553"><ele>1027.0</ele><time>2026-04-29T11:52:49.883Z</time></trkpt><trkpt lat="40.12927566314307" lon="9.395463633442523"><ele>1027.0</ele><time>2026-04-29T11:52:50.883Z</time></trkpt><trkpt lat="40.129172362917735" lon="9.3954016347152"><ele>1027.0</ele><time>2026-04-29T11:52:51.883Z</time></trkpt><trkpt lat="40.12906302501779" lon="9.395325467056761"><ele>1027.0</ele><time>2026-04-29T11:52:52.883Z</time></trkpt><trkpt lat="40.128945840214016" lon="9.39524529793758"><ele>1023.5</ele><time>2026-04-29T11:52:53.883Z</time></trkpt><trkpt lat="40.128823507376865" lon="9.395174119446553"><ele>1020.0</ele><time>2026-04-29T11:52:54.883Z</time></trkpt><trkpt lat="40.128696717787825" lon="9.39511174793381"><ele>1016.5</ele><time>2026-04-29T11:52:55.883Z</time></trkpt><trkpt lat="40.12855216461201" lon="9.395068055763627"><ele>1013.0</ele><time>2026-04-29T11:52:56.883Z</time></trkpt><trkpt lat="40.12840236717136" lon="9.395038350212223"><ele>1013.0</ele><time>2026-04-29T11:52:57.883Z</time></trkpt><trkpt lat="40.12825530926576" lon="9.395000213808633"><ele>1013.0</ele><time>2026-04-29T11:52:58.883Z</time></trkpt><trkpt lat="40.128112971799794" lon="9.394947567697148"><ele>1013.0</ele><time>2026-04-29T11:52:59.883Z</time></trkpt><trkpt lat="40.127982566359826" lon="9.394904563877512"><ele>1013.0</ele><time>2026-04-29T11:53:00.883Z</time></trkpt><trkpt lat="40.12784914805794" lon="9.394859199805424"><ele>1012.2</ele><time>2026-04-29T11:53:01.883Z</time></trkpt><trkpt lat="40.12773835422159" lon="9.394827123245985"><ele>1011.4</ele><time>2026-04-29T11:53:02.883Z</time></trkpt><trkpt lat="40.127631137659996" lon="9.39483701454415"><ele>1010.6000000000001</ele><time>2026-04-29T11:53:03.883Z</time></trkpt><trkpt lat="40.12753200282705" lon="9.394864581410157"><ele>1009.8000000000001</ele><time>2026-04-29T11:53:04.883Z</time></trkpt><trkpt lat="40.127430793090994" lon="9.394911539644037"><ele>1009.0</ele><time>2026-04-29T11:53:05.883Z</time></trkpt><trkpt lat="40.12733430459515" lon="9.394981182787895"><ele>1008.8333333333333</ele><time>2026-04-29T11:53:06.883Z</time></trkpt><trkpt lat="40.12724436249955" lon="9.395041575194758"><ele>1008.6666666666666</ele><time>2026-04-29T11:53:07.883Z</time></trkpt><trkpt lat="40.12716495417118" lon="9.395085492552477"><ele>1008.5</ele><time>2026-04-29T11:53:08.884Z</time></trkpt><trkpt lat="40.12708948541317" lon="9.395102820069484"><ele>1008.3333333333333</ele><time>2026-04-29T11:53:09.884Z</time></trkpt><trkpt lat="40.12702025765229" lon="9.395093260709858"><ele>1008.1666666666666</ele><time>2026-04-29T11:53:10.884Z</time></trkpt><trkpt lat="40.126951061277055" lon="9.395045987979913"><ele>1008.0</ele><time>2026-04-29T11:53:11.884Z</time></trkpt><trkpt lat="40.126891991480555" lon="9.394967438938592"><ele>1008.0</ele><time>2026-04-29T11:53:12.884Z</time></trkpt><trkpt lat="40.12682802343023" lon="9.394878215559045"><ele>1008.0</ele><time>2026-04-29T11:53:13.884Z</time></trkpt><trkpt lat="40.126758118320154" lon="9.394817594167176"><ele>1008.0</ele><time>2026-04-29T11:53:14.884Z</time></trkpt><trkpt lat="40.126682426717515" lon="9.394782742260025"><ele>1008.0</ele><time>2026-04-29T11:53:15.884Z</time></trkpt><trkpt lat="40.12659926464404" lon="9.394774242735101"><ele>1008.0</ele><time>2026-04-29T11:53:16.884Z</time></trkpt><trkpt lat="40.1265044008083" lon="9.394786564485745"><ele>1008.0</ele><time>2026-04-29T11:53:17.884Z</time></trkpt><trkpt lat="40.12639771385604" lon="9.39480392501504"><ele>1006.75</ele><time>2026-04-29T11:53:18.884Z</time></trkpt><trkpt lat="40.126278258287236" lon="9.394815262291473"><ele>1005.5</ele><time>2026-04-29T11:53:19.884Z</time></trkpt><trkpt lat="40.126152559256276" lon="9.394834426130046"><ele>1004.25</ele><time>2026-04-29T11:53:20.884Z</time></trkpt><trkpt lat="40.12602786449794" lon="9.394848024903544"><ele>1003.0</ele><time>2026-04-29T11:53:21.884Z</time></trkpt><trkpt lat="40.12590950317237" lon="9.394866333762014"><ele>1003.0</ele><time>2026-04-29T11:53:22.884Z</time></trkpt><trkpt lat="40.12580253849096" lon="9.394867233276656"><ele>1003.0</ele><time>2026-04-29T11:53:23.884Z</time></trkpt><trkpt lat="40.12570431771029" lon="9.39484678135851"><ele>1003.0</ele><time>2026-04-29T11:53:24.884Z</time></trkpt><trkpt lat="40.12561257656803" lon="9.394791908400931"><ele>1003.0</ele><time>2026-04-29T11:53:25.884Z</time></trkpt><trkpt lat="40.125508584024864" lon="9.394739306523498"><ele>1003.0</ele><time>2026-04-29T11:53:26.884Z</time></trkpt><trkpt lat="40.12540504404405" lon="9.394700946450934"><ele>1002.4</ele><time>2026-04-29T11:53:27.884Z</time></trkpt><trkpt lat="40.125303193816016" lon="9.394667195753316"><ele>1001.8</ele><time>2026-04-29T11:53:28.884Z</time></trkpt><trkpt lat="40.125197634406376" lon="9.394657610719715"><ele>1001.2</ele><time>2026-04-29T11:53:29.884Z</time></trkpt><trkpt lat="40.12509594362934" lon="9.394696072874776"><ele>1000.6</ele><time>2026-04-29T11:53:30.884Z</time></trkpt><trkpt lat="40.12499805410769" lon="9.394746534384248"><ele>1000.0</ele><time>2026-04-29T11:53:31.884Z</time></trkpt><trkpt lat="40.124896570521116" lon="9.394814426895131"><ele>1006.75</ele><time>2026-04-29T11:53:32.884Z</time></trkpt><trkpt lat="40.124783709276485" lon="9.394896588735262"><ele>1013.5</ele><time>2026-04-29T11:53:33.884Z</time></trkpt><trkpt lat="40.1246748725593" lon="9.394987242411462"><ele>1020.25</ele><time>2026-04-29T11:53:34.884Z</time></trkpt><trkpt lat="40.1245711082405" lon="9.39508791695797"><ele>1027.0</ele><time>2026-04-29T11:53:35.884Z</time></trkpt><trkpt lat="40.124471957307534" lon="9.395180835564135"><ele>1027.0</ele><time>2026-04-29T11:53:36.884Z</time></trkpt><trkpt lat="40.124381316608066" lon="9.395250166750046"><ele>1027.0</ele><time>2026-04-29T11:53:37.884Z</time></trkpt><trkpt lat="40.124279939450275" lon="9.395288822340508"><ele>1027.0</ele><time>2026-04-29T11:53:38.884Z</time></trkpt><trkpt lat="40.12416616215448" lon="9.395324350401"><ele>1027.0</ele><time>2026-04-29T11:53:39.884Z</time></trkpt><trkpt lat="40.12404230574005" lon="9.395351930620462"><ele>1030.0</ele><time>2026-04-29T11:53:40.884Z</time></trkpt><trkpt lat="40.123909785982924" lon="9.395381877473168"><ele>1033.0</ele><time>2026-04-29T11:53:41.884Z</time></trkpt><trkpt lat="40.123781752490466" lon="9.395404665218782"><ele>1036.0</ele><time>2026-04-29T11:53:42.884Z</time></trkpt><trkpt lat="40.123645214806196" lon="9.395443302662267"><ele>1039.0</ele><time>2026-04-29T11:53:43.884Z</time></trkpt><trkpt lat="40.123515743822765" lon="9.395489503637597"><ele>1034.0</ele><time>2026-04-29T11:53:44.884Z</time></trkpt><trkpt lat="40.12340064489694" lon="9.395538871868554"><ele>1029.0</ele><time>2026-04-29T11:53:45.884Z</time></trkpt><trkpt lat="40.1233026593087" lon="9.395584799078993"><ele>1024.0</ele><time>2026-04-29T11:53:46.884Z</time></trkpt><trkpt lat="40.12322047237318" lon="9.395628744326077"><ele>1019.0</ele><time>2026-04-29T11:53:47.884Z</time></trkpt><trkpt lat="40.12314834203677" lon="9.395674946046563"><ele>1014.0</ele><time>2026-04-29T11:53:48.884Z</time></trkpt><trkpt lat="40.123034008184725" lon="9.395805494671793"><ele>1014.0</ele><time>2026-04-29T11:53:50.884Z</time></trkpt><trkpt lat="40.12298539634339" lon="9.395871453196195"><ele>1014.0</ele><time>2026-04-29T11:53:51.884Z</time></trkpt><trkpt lat="40.12294189005404" lon="9.395959105844737"><ele>1014.0</ele><time>2026-04-29T11:53:52.884Z</time></trkpt><trkpt lat="40.12291697658043" lon="9.39605809153751"><ele>1014.0</ele><time>2026-04-29T11:53:53.884Z</time></trkpt><trkpt lat="40.12288314149513" lon="9.396137116604265"><ele>1014.0</ele><time>2026-04-29T11:53:54.884Z</time></trkpt><trkpt lat="40.122823496707625" lon="9.396228538695082"><ele>1014.0</ele><time>2026-04-29T11:53:56.884Z</time></trkpt><trkpt lat="40.12277594682204" lon="9.396297297569022"><ele>1013.1666666666666</ele><time>2026-04-29T11:53:58.884Z</time></trkpt><trkpt lat="40.122714137676844" lon="9.396336839052758"><ele>1012.3333333333333</ele><time>2026-04-29T11:54:01.884Z</time></trkpt><trkpt lat="40.12263346432526" lon="9.396372725422871"><ele>1011.5</ele><time>2026-04-29T11:54:04.884Z</time></trkpt><trkpt lat="40.12256764910363" lon="9.396387409847263"><ele>1010.6666666666666</ele><time>2026-04-29T11:54:10.884Z</time></trkpt><trkpt lat="40.12248418755383" lon="9.3963956309384"><ele>1009.8333333333333</ele><time>2026-04-29T11:59:57.884Z</time></trkpt><trkpt lat="40.12241390916431" lon="9.39636843372335"><ele>1009.0</ele><time>2026-04-29T11:59:59.884Z</time></trkpt><trkpt lat="40.122337498642814" lon="9.39635765057946"><ele>1008.9999999999999</ele><time>2026-04-29T12:00:01.884Z</time></trkpt><trkpt lat="40.12222968665774" lon="9.396349957111184"><ele>1009.0</ele><time>2026-04-29T12:00:03.884Z</time></trkpt><trkpt lat="40.122113544343534" lon="9.396326197910666"><ele>1009.0</ele><time>2026-04-29T12:00:05.884Z</time></trkpt><trkpt lat="40.12204637451612" lon="9.39632116142403"><ele>1009.0</ele><time>2026-04-29T12:00:06.884Z</time></trkpt><trkpt lat="40.121979378765126" lon="9.396311177496933"><ele>1008.9999999999999</ele><time>2026-04-29T12:00:07.884Z</time></trkpt><trkpt lat="40.12191482464765" lon="9.396295497507023"><ele>1009.0</ele><time>2026-04-29T12:00:08.884Z</time></trkpt><trkpt lat="40.121818748204696" lon="9.396297897654419"><ele>1009.0</ele><time>2026-04-29T12:00:10.884Z</time></trkpt><trkpt lat="40.12177182290621" lon="9.396360802668918"><ele>1009.0000000000001</ele><time>2026-04-29T12:00:13.884Z</time></trkpt><trkpt lat="40.12170215988073" lon="9.396437265938587"><ele>1009.0000000000001</ele><time>2026-04-29T12:00:16.884Z</time></trkpt><trkpt lat="40.12161195699203" lon="9.396465865824114"><ele>1009.0</ele><time>2026-04-29T12:00:19.884Z</time></trkpt><trkpt lat="40.12151178477286" lon="9.396455895441932"><ele>1009.0</ele><time>2026-04-29T12:00:21.884Z</time></trkpt><trkpt lat="40.12140112471039" lon="9.396439446741956"><ele>1010.0</ele><time>2026-04-29T12:00:23.884Z</time></trkpt><trkpt lat="40.12128079387711" lon="9.396413633666135"><ele>1011.0000000000001</ele><time>2026-04-29T12:00:25.884Z</time></trkpt><trkpt lat="40.12118410382652" lon="9.39639129224112"><ele>1012.0000000000001</ele><time>2026-04-29T12:00:27.884Z</time></trkpt><trkpt lat="40.12107942552987" lon="9.396396448434784"><ele>1013.0</ele><time>2026-04-29T12:00:29.884Z</time></trkpt><trkpt lat="40.121010235256705" lon="9.39639265053023"><ele>1014.0</ele><time>2026-04-29T12:00:30.884Z</time></trkpt><trkpt lat="40.12094658474234" lon="9.396380794869488"><ele>1014.0</ele><time>2026-04-29T12:00:31.884Z</time></trkpt><trkpt lat="40.120839363780455" lon="9.396389704521448"><ele>1014.0000000000001</ele><time>2026-04-29T12:00:33.883Z</time></trkpt><trkpt lat="40.120746831688635" lon="9.396425197044106"><ele>1014.0000000000001</ele><time>2026-04-29T12:00:35.884Z</time></trkpt><trkpt lat="40.12067655030479" lon="9.396508054205547"><ele>1014.0</ele><time>2026-04-29T12:00:37.883Z</time></trkpt><trkpt lat="40.120595739922" lon="9.396587783915"><ele>1014.0</ele><time>2026-04-29T12:00:38.884Z</time></trkpt><trkpt lat="40.120532623134444" lon="9.39661957858948"><ele>1016.4000000000001</ele><time>2026-04-29T12:00:39.883Z</time></trkpt><trkpt lat="40.12046663002774" lon="9.396658033331803"><ele>1018.8000000000001</ele><time>2026-04-29T12:00:40.883Z</time></trkpt><trkpt lat="40.12036791811453" lon="9.396732380299488"><ele>1021.1999999999999</ele><time>2026-04-29T12:00:41.884Z</time></trkpt><trkpt lat="40.120291660231345" lon="9.396769749574151"><ele>1023.5999999999999</ele><time>2026-04-29T12:00:42.883Z</time></trkpt><trkpt lat="40.12022518580966" lon="9.396788479363003"><ele>1026.0</ele><time>2026-04-29T12:00:43.883Z</time></trkpt><trkpt lat="40.1200948047994" lon="9.396782345174627"><ele>1026.0</ele><time>2026-04-29T12:00:45.883Z</time></trkpt><trkpt lat="40.12001900094857" lon="9.396760257035824"><ele>1026.0</ele><time>2026-04-29T12:00:46.883Z</time></trkpt><trkpt lat="40.11995405682838" lon="9.396703366236554"><ele>1026.0</ele><time>2026-04-29T12:00:47.883Z</time></trkpt><trkpt lat="40.119891090244145" lon="9.396638204532394"><ele>1026.0</ele><time>2026-04-29T12:00:48.883Z</time></trkpt><trkpt lat="40.11982548511974" lon="9.396584424662995"><ele>1026.0</ele><time>2026-04-29T12:00:49.883Z</time></trkpt><trkpt lat="40.11975160538592" lon="9.396527654295074"><ele>1026.0</ele><time>2026-04-29T12:00:50.883Z</time></trkpt><trkpt lat="40.119680526063306" lon="9.39649532389028"><ele>1025.2</ele><time>2026-04-29T12:00:51.883Z</time></trkpt><trkpt lat="40.11955613014315" lon="9.396462292636553"><ele>1024.3999999999999</ele><time>2026-04-29T12:00:53.883Z</time></trkpt><trkpt lat="40.119414794069094" lon="9.396440572738905"><ele>1023.6</ele><time>2026-04-29T12:00:55.883Z</time></trkpt><trkpt lat="40.11934114196878" lon="9.396442059034309"><ele>1022.8</ele><time>2026-04-29T12:00:56.883Z</time></trkpt><trkpt lat="40.119270272659655" lon="9.396441202113639"><ele>1022.0</ele><time>2026-04-29T12:00:57.883Z</time></trkpt><trkpt lat="40.11920840348063" lon="9.396417832527568"><ele>1022.0000000000001</ele><time>2026-04-29T12:00:58.883Z</time></trkpt><trkpt lat="40.11914915744559" lon="9.396385168050783"><ele>1022.0</ele><time>2026-04-29T12:00:59.883Z</time></trkpt><trkpt lat="40.119079763193994" lon="9.396350697985365"><ele>1022.0</ele><time>2026-04-29T12:01:00.883Z</time></trkpt><trkpt lat="40.11901364756006" lon="9.396336059200024"><ele>1022.0</ele><time>2026-04-29T12:01:02.883Z</time></trkpt><trkpt lat="40.11887305632462" lon="9.396390373126815"><ele>1022.0000000000001</ele><time>2026-04-29T12:01:05.883Z</time></trkpt><trkpt lat="40.118791389407804" lon="9.396434655749577"><ele>1022.0</ele><time>2026-04-29T12:01:06.883Z</time></trkpt><trkpt lat="40.118726392578274" lon="9.39647673356935"><ele>1024.1666666666667</ele><time>2026-04-29T12:01:07.883Z</time></trkpt><trkpt lat="40.11864117801636" lon="9.396516548830114"><ele>1026.3333333333335</ele><time>2026-04-29T12:01:08.883Z</time></trkpt><trkpt lat="40.118552537841296" lon="9.396550585782748"><ele>1028.5</ele><time>2026-04-29T12:01:09.883Z</time></trkpt><trkpt lat="40.1184795004577" lon="9.39660268585864"><ele>1030.6666666666667</ele><time>2026-04-29T12:01:10.883Z</time></trkpt><trkpt lat="40.11841456912697" lon="9.396661123702758"><ele>1032.8333333333333</ele><time>2026-04-29T12:01:11.883Z</time></trkpt><trkpt lat="40.11835831239488" lon="9.396714304346908"><ele>1035.0</ele><time>2026-04-29T12:01:12.883Z</time></trkpt><trkpt lat="40.1183021222168" lon="9.396760606186339"><ele>1036.1666666666667</ele><time>2026-04-29T12:01:13.883Z</time></trkpt><trkpt lat="40.11819982497919" lon="9.396836801991048"><ele>1037.3333333333333</ele><time>2026-04-29T12:01:15.883Z</time></trkpt><trkpt lat="40.118126319800574" lon="9.396817587585437"><ele>1038.5</ele><time>2026-04-29T12:01:16.883Z</time></trkpt><trkpt lat="40.11804614386122" lon="9.396806296467803"><ele>1039.6666666666665</ele><time>2026-04-29T12:01:17.883Z</time></trkpt><trkpt lat="40.117969699723034" lon="9.396819579539198"><ele>1040.8333333333333</ele><time>2026-04-29T12:01:18.883Z</time></trkpt><trkpt lat="40.11790517472017" lon="9.396841964486638"><ele>1042.0</ele><time>2026-04-29T12:01:19.883Z</time></trkpt><trkpt lat="40.11782268656649" lon="9.396871806702636"><ele>1042.0</ele><time>2026-04-29T12:01:20.883Z</time></trkpt><trkpt lat="40.11769330262386" lon="9.396885289946631"><ele>1042.0</ele><time>2026-04-29T12:01:22.883Z</time></trkpt><trkpt lat="40.11762974477768" lon="9.39688012957339"><ele>1042.0</ele><time>2026-04-29T12:01:23.883Z</time></trkpt><trkpt lat="40.1175773531253" lon="9.396832768962163"><ele>1042.0</ele><time>2026-04-29T12:01:24.883Z</time></trkpt><trkpt lat="40.117444412170606" lon="9.396775650019281"><ele>1042.0</ele><time>2026-04-29T12:01:26.883Z</time></trkpt><trkpt lat="40.11736225585324" lon="9.396757333421656"><ele>1042.1666666666665</ele><time>2026-04-29T12:01:27.883Z</time></trkpt><trkpt lat="40.117281321666425" lon="9.396708754003669"><ele>1042.3333333333333</ele><time>2026-04-29T12:01:28.883Z</time></trkpt><trkpt lat="40.11721475742219" lon="9.396667862164476"><ele>1042.5</ele><time>2026-04-29T12:01:29.883Z</time></trkpt><trkpt lat="40.11714615688636" lon="9.39664059407135"><ele>1042.6666666666667</ele><time>2026-04-29T12:01:30.883Z</time></trkpt><trkpt lat="40.11704706193092" lon="9.396622915132088"><ele>1042.8333333333335</ele><time>2026-04-29T12:01:32.884Z</time></trkpt><trkpt lat="40.11695297232694" lon="9.39666164309103"><ele>1043.0</ele><time>2026-04-29T12:01:34.884Z</time></trkpt><trkpt lat="40.11684922361619" lon="9.396748816234807"><ele>1043.0</ele><time>2026-04-29T12:01:36.884Z</time></trkpt><trkpt lat="40.11674038355201" lon="9.39681949519439"><ele>1043.0</ele><time>2026-04-29T12:01:38.884Z</time></trkpt><trkpt lat="40.11666488974836" lon="9.39682917741234"><ele>1043.0</ele><time>2026-04-29T12:01:39.884Z</time></trkpt><trkpt lat="40.11658433984308" lon="9.396800864853542"><ele>1043.0</ele><time>2026-04-29T12:01:40.884Z</time></trkpt><trkpt lat="40.116496559116264" lon="9.396793377975873"><ele>1043.0</ele><time>2026-04-29T12:01:41.884Z</time></trkpt><trkpt lat="40.11640785762454" lon="9.396806119472894"><ele>1046.2</ele><time>2026-04-29T12:01:42.884Z</time></trkpt><trkpt lat="40.11632088376396" lon="9.396821480920783"><ele>1049.4</ele><time>2026-04-29T12:01:43.884Z</time></trkpt><trkpt lat="40.11622453252655" lon="9.396832835673994"><ele>1052.6000000000001</ele><time>2026-04-29T12:01:44.884Z</time></trkpt><trkpt lat="40.116127065123806" lon="9.396846001176993"><ele>1055.8</ele><time>2026-04-29T12:01:45.884Z</time></trkpt><trkpt lat="40.11602635030602" lon="9.396864547591152"><ele>1059.0</ele><time>2026-04-29T12:01:46.884Z</time></trkpt><trkpt lat="40.11591499904946" lon="9.396888874255703"><ele>1059.0</ele><time>2026-04-29T12:01:47.884Z</time></trkpt><trkpt lat="40.11580264233461" lon="9.396936245293348"><ele>1059.0</ele><time>2026-04-29T12:01:48.884Z</time></trkpt><trkpt lat="40.11569104123699" lon="9.396979380505014"><ele>1059.0</ele><time>2026-04-29T12:01:49.884Z</time></trkpt><trkpt lat="40.11558504486436" lon="9.39703257377692"><ele>1059.0</ele><time>2026-04-29T12:01:50.884Z</time></trkpt><trkpt lat="40.11549157677862" lon="9.397056845006114"><ele>1059.0</ele><time>2026-04-29T12:01:51.884Z</time></trkpt><trkpt lat="40.115405011960625" lon="9.3970707936173"><ele>1060.4</ele><time>2026-04-29T12:01:52.884Z</time></trkpt><trkpt lat="40.11532105492342" lon="9.397072988151077"><ele>1061.8000000000002</ele><time>2026-04-29T12:01:53.884Z</time></trkpt><trkpt lat="40.11523199379627" lon="9.397087775723175"><ele>1063.1999999999998</ele><time>2026-04-29T12:01:54.884Z</time></trkpt><trkpt lat="40.11513457914802" lon="9.397094579999688"><ele>1064.6</ele><time>2026-04-29T12:01:55.884Z</time></trkpt><trkpt lat="40.115025179367834" lon="9.397106089501467"><ele>1066.0</ele><time>2026-04-29T12:01:56.884Z</time></trkpt><trkpt lat="40.114925076331524" lon="9.397094297259029"><ele>1067.0</ele><time>2026-04-29T12:01:57.884Z</time></trkpt><trkpt lat="40.11482468654315" lon="9.39708123910686"><ele>1068.0</ele><time>2026-04-29T12:01:58.884Z</time></trkpt><trkpt lat="40.1147392418016" lon="9.397049156170514"><ele>1069.0</ele><time>2026-04-29T12:01:59.884Z</time></trkpt><trkpt lat="40.114669176804156" lon="9.39703435088967"><ele>1070.0</ele><time>2026-04-29T12:02:00.884Z</time></trkpt><trkpt lat="40.11459506025765" lon="9.397067752830841"><ele>1071.0</ele><time>2026-04-29T12:02:02.884Z</time></trkpt><trkpt lat="40.11451498451355" lon="9.397179821620579"><ele>1069.0</ele><time>2026-04-29T12:02:05.884Z</time></trkpt><trkpt lat="40.11447344139294" lon="9.397296050250711"><ele>1067.0</ele><time>2026-04-29T12:02:06.884Z</time></trkpt><trkpt lat="40.114438287596094" lon="9.397440676880828"><ele>1065.0</ele><time>2026-04-29T12:02:07.884Z</time></trkpt><trkpt lat="40.11440677732354" lon="9.39757900760374"><ele>1063.0</ele><time>2026-04-29T12:02:08.884Z</time></trkpt><trkpt lat="40.11435282380623" lon="9.397697491231536"><ele>1061.0</ele><time>2026-04-29T12:02:09.884Z</time></trkpt><trkpt lat="40.11430948515481" lon="9.397789775353404"><ele>1061.0</ele><time>2026-04-29T12:02:10.884Z</time></trkpt><trkpt lat="40.11422467293883" lon="9.397883132274593"><ele>1061.0</ele><time>2026-04-29T12:02:12.884Z</time></trkpt><trkpt lat="40.11410304359638" lon="9.397883662557145"><ele>1061.0</ele><time>2026-04-29T12:02:14.884Z</time></trkpt><trkpt lat="40.11402595251551" lon="9.397880993951091"><ele>1061.0</ele><time>2026-04-29T12:02:15.884Z</time></trkpt><trkpt lat="40.11395494196618" lon="9.39787818365892"><ele>1061.0</ele><time>2026-04-29T12:02:16.884Z</time></trkpt><trkpt lat="40.113869575269675" lon="9.39789593913002"><ele>1060.2</ele><time>2026-04-29T12:02:17.884Z</time></trkpt><trkpt lat="40.11377098759272" lon="9.397926168652624"><ele>1059.3999999999999</ele><time>2026-04-29T12:02:18.884Z</time></trkpt><trkpt lat="40.11366904383858" lon="9.397968272802121"><ele>1058.6</ele><time>2026-04-29T12:02:19.884Z</time></trkpt><trkpt lat="40.11357001267441" lon="9.398006443314458"><ele>1057.8</ele><time>2026-04-29T12:02:20.884Z</time></trkpt><trkpt lat="40.1134540748326" lon="9.398034342617455"><ele>1057.0</ele><time>2026-04-29T12:02:21.884Z</time></trkpt><trkpt lat="40.113334365632475" lon="9.398060853224333"><ele>1060.4</ele><time>2026-04-29T12:02:22.884Z</time></trkpt><trkpt lat="40.113231067708796" lon="9.398078266560532"><ele>1063.8000000000002</ele><time>2026-04-29T12:02:23.884Z</time></trkpt><trkpt lat="40.11313186386623" lon="9.39811174717211"><ele>1067.2</ele><time>2026-04-29T12:02:24.884Z</time></trkpt><trkpt lat="40.11302794376708" lon="9.398155637550897"><ele>1070.6000000000001</ele><time>2026-04-29T12:02:25.884Z</time></trkpt><trkpt lat="40.11292012321856" lon="9.398220351882825"><ele>1074.0</ele><time>2026-04-29T12:02:26.884Z</time></trkpt><trkpt lat="40.11280905136363" lon="9.398294321701572"><ele>1074.0</ele><time>2026-04-29T12:02:27.884Z</time></trkpt><trkpt lat="40.11272658225424" lon="9.398341871452311"><ele>1074.0</ele><time>2026-04-29T12:02:28.884Z</time></trkpt><trkpt lat="40.11264460169749" lon="9.398406778539572"><ele>1074.0</ele><time>2026-04-29T12:02:29.884Z</time></trkpt><trkpt lat="40.11256857771769" lon="9.398461247372495"><ele>1074.0</ele><time>2026-04-29T12:02:30.884Z</time></trkpt><trkpt lat="40.1125122539092" lon="9.398525534087366"><ele>1074.0</ele><time>2026-04-29T12:02:31.884Z</time></trkpt><trkpt lat="40.112456939162" lon="9.398608997440535"><ele>1074.0</ele><time>2026-04-29T12:02:32.884Z</time></trkpt><trkpt lat="40.11240623381665" lon="9.398692029201158"><ele>1077.3333333333333</ele><time>2026-04-29T12:02:33.884Z</time></trkpt><trkpt lat="40.112341066669885" lon="9.398792258179173"><ele>1080.6666666666667</ele><time>2026-04-29T12:02:34.884Z</time></trkpt><trkpt lat="40.11229888474755" lon="9.398856296794554"><ele>1084.0</ele><time>2026-04-29T12:02:35.883Z</time></trkpt><trkpt lat="40.11223029096401" lon="9.398961194855469"><ele>1087.3333333333335</ele><time>2026-04-29T12:02:37.884Z</time></trkpt><trkpt lat="40.11218142155625" lon="9.399028281212681"><ele>1090.6666666666667</ele><time>2026-04-29T12:02:41.884Z</time></trkpt><trkpt lat="40.112130832165704" lon="9.399084789304187"><ele>1094.0</ele><time>2026-04-29T12:02:49.883Z</time></trkpt><trkpt lat="40.11208165591529" lon="9.399143528365123"><ele>1094.0</ele><time>2026-04-29T12:02:58.883Z</time></trkpt><trkpt lat="40.11207043139612" lon="9.399045511315357"><ele>1094.0</ele><time>2026-04-29T12:03:02.883Z</time></trkpt><trkpt lat="40.11207306526353" lon="9.398934643775204"><ele>1094.0</ele><time>2026-04-29T12:03:04.883Z</time></trkpt><trkpt lat="40.11208988029017" lon="9.398809507674166"><ele>1094.0</ele><time>2026-04-29T12:03:06.883Z</time></trkpt><trkpt lat="40.1121317507234" lon="9.398727327319172"><ele>1094.0</ele><time>2026-04-29T12:03:07.883Z</time></trkpt><trkpt lat="40.11217463333208" lon="9.398640835219188"><ele>1094.0</ele><time>2026-04-29T12:03:08.883Z</time></trkpt><trkpt lat="40.11225333897186" lon="9.39854128789846"><ele>1094.1666666666667</ele><time>2026-04-29T12:03:09.883Z</time></trkpt><trkpt lat="40.112322142348475" lon="9.398453206078264"><ele>1094.3333333333335</ele><time>2026-04-29T12:03:10.883Z</time></trkpt><trkpt lat="40.1123780501851" lon="9.398363092804892"><ele>1094.5</ele><time>2026-04-29T12:03:11.883Z</time></trkpt><trkpt lat="40.112425541778634" lon="9.398259893672284"><ele>1094.6666666666667</ele><time>2026-04-29T12:03:12.883Z</time></trkpt><trkpt lat="40.112470406499874" lon="9.39816320162383"><ele>1094.8333333333333</ele><time>2026-04-29T12:03:13.883Z</time></trkpt><trkpt lat="40.11251693663374" lon="9.398070498853585"><ele>1095.0</ele><time>2026-04-29T12:03:14.883Z</time></trkpt><trkpt lat="40.11256684672842" lon="9.397981754940954"><ele>1092.0</ele><time>2026-04-29T12:03:15.883Z</time></trkpt><trkpt lat="40.112610873607004" lon="9.397879155781132"><ele>1089.0</ele><time>2026-04-29T12:03:16.883Z</time></trkpt><trkpt lat="40.112638465690246" lon="9.397788952350016"><ele>1086.0</ele><time>2026-04-29T12:03:17.883Z</time></trkpt><trkpt lat="40.11265031230797" lon="9.39770213069307"><ele>1083.0</ele><time>2026-04-29T12:03:18.883Z</time></trkpt><trkpt lat="40.1126648867825" lon="9.397583586343924"><ele>1080.0</ele><time>2026-04-29T12:03:20.883Z</time></trkpt><trkpt lat="40.11269432402998" lon="9.397487727358143"><ele>1077.0</ele><time>2026-04-29T12:03:22.883Z</time></trkpt><trkpt lat="40.11276715575094" lon="9.397408294156769"><ele>1077.0</ele><time>2026-04-29T12:03:24.883Z</time></trkpt><trkpt lat="40.1128260832126" lon="9.397343092090264"><ele>1077.0</ele><time>2026-04-29T12:03:26.883Z</time></trkpt><trkpt lat="40.11286253998552" lon="9.397234021601525"><ele>1077.0</ele><time>2026-04-29T12:03:28.883Z</time></trkpt><trkpt lat="40.11283532515347" lon="9.397105450610049"><ele>1077.0</ele><time>2026-04-29T12:03:30.883Z</time></trkpt><trkpt lat="40.11276094681928" lon="9.396976676675546"><ele>1077.0</ele><time>2026-04-29T12:03:32.883Z</time></trkpt><trkpt lat="40.112715640738465" lon="9.396841742648325"><ele>1075.0</ele><time>2026-04-29T12:03:34.883Z</time></trkpt><trkpt lat="40.11268305243392" lon="9.396704662692127"><ele>1073.0</ele><time>2026-04-29T12:03:36.884Z</time></trkpt><trkpt lat="40.1126539020729" lon="9.396583134593469"><ele>1071.0</ele><time>2026-04-29T12:03:38.884Z</time></trkpt><trkpt lat="40.11264482037236" lon="9.396475371515717"><ele>1069.0</ele><time>2026-04-29T12:03:40.884Z</time></trkpt><trkpt lat="40.11266905110681" lon="9.396329879691788"><ele>1067.0</ele><time>2026-04-29T12:03:42.884Z</time></trkpt><trkpt lat="40.11268346449284" lon="9.396234725398624"><ele>1065.5</ele><time>2026-04-29T12:03:43.884Z</time></trkpt><trkpt lat="40.11268851860361" lon="9.396138993524515"><ele>1064.0</ele><time>2026-04-29T12:03:44.884Z</time></trkpt><trkpt lat="40.11267708014071" lon="9.396041791553793"><ele>1062.5</ele><time>2026-04-29T12:03:45.884Z</time></trkpt><trkpt lat="40.112658195478616" lon="9.395949210112272"><ele>1061.0</ele><time>2026-04-29T12:03:46.884Z</time></trkpt><trkpt lat="40.11263836569642" lon="9.395866393123566"><ele>1059.5</ele><time>2026-04-29T12:03:47.884Z</time></trkpt><trkpt lat="40.112607099032815" lon="9.395712690965674"><ele>1058.0</ele><time>2026-04-29T12:03:49.884Z</time></trkpt><trkpt lat="40.1126147531323" lon="9.39556724308144"><ele>1057.0</ele><time>2026-04-29T12:03:51.884Z</time></trkpt><trkpt lat="40.11265645029907" lon="9.395414852886116"><ele>1056.0</ele><time>2026-04-29T12:03:53.884Z</time></trkpt><trkpt lat="40.11269222517721" lon="9.395336209314648"><ele>1055.0</ele><time>2026-04-29T12:03:54.884Z</time></trkpt><trkpt lat="40.112736077022554" lon="9.395253835161204"><ele>1054.0</ele><time>2026-04-29T12:03:55.884Z</time></trkpt><trkpt lat="40.11277029077694" lon="9.395156263441217"><ele>1053.0</ele><time>2026-04-29T12:03:56.884Z</time></trkpt><trkpt lat="40.11278605524495" lon="9.395059285691623"><ele>1052.0</ele><time>2026-04-29T12:03:57.884Z</time></trkpt><trkpt lat="40.11279761611854" lon="9.394965765574478"><ele>1052.0</ele><time>2026-04-29T12:03:58.884Z</time></trkpt><trkpt lat="40.11281071246871" lon="9.394862784990265"><ele>1052.0</ele><time>2026-04-29T12:03:59.884Z</time></trkpt><trkpt lat="40.112814198458025" lon="9.394765701502251"><ele>1052.0</ele><time>2026-04-29T12:04:00.884Z</time></trkpt><trkpt lat="40.11280641514474" lon="9.394662064485997"><ele>1052.0</ele><time>2026-04-29T12:04:01.884Z</time></trkpt><trkpt lat="40.112799766990065" lon="9.39455495900791"><ele>1052.0</ele><time>2026-04-29T12:04:02.884Z</time></trkpt><trkpt lat="40.11278823536126" lon="9.394461467552789"><ele>1052.0</ele><time>2026-04-29T12:04:03.884Z</time></trkpt><trkpt lat="40.112788276106414" lon="9.394371526236384"><ele>1051.2</ele><time>2026-04-29T12:04:04.884Z</time></trkpt><trkpt lat="40.112792726496224" lon="9.394266738072526"><ele>1050.4</ele><time>2026-04-29T12:04:05.884Z</time></trkpt><trkpt lat="40.11279779128172" lon="9.394150136762454"><ele>1049.6</ele><time>2026-04-29T12:04:06.884Z</time></trkpt><trkpt lat="40.112804510307896" lon="9.394021023585571"><ele>1048.8</ele><time>2026-04-29T12:04:07.884Z</time></trkpt><trkpt lat="40.11281240440578" lon="9.393892544728134"><ele>1048.0</ele><time>2026-04-29T12:04:08.884Z</time></trkpt><trkpt lat="40.11282359660277" lon="9.393757908392436"><ele>1046.8333333333333</ele><time>2026-04-29T12:04:09.884Z</time></trkpt><trkpt lat="40.11283007393753" lon="9.393626867398476"><ele>1045.6666666666665</ele><time>2026-04-29T12:04:10.884Z</time></trkpt><trkpt lat="40.11282885917954" lon="9.393502093639038"><ele>1044.5</ele><time>2026-04-29T12:04:11.884Z</time></trkpt><trkpt lat="40.112824883463524" lon="9.393385072598582"><ele>1043.3333333333333</ele><time>2026-04-29T12:04:12.884Z</time></trkpt><trkpt lat="40.11281990051729" lon="9.39327283178451"><ele>1042.1666666666667</ele><time>2026-04-29T12:04:13.884Z</time></trkpt><trkpt lat="40.11281704891932" lon="9.393174547179768"><ele>1041.0</ele><time>2026-04-29T12:04:14.884Z</time></trkpt><trkpt lat="40.11281601733265" lon="9.393089523712767"><ele>1040.1666666666667</ele><time>2026-04-29T12:04:15.884Z</time></trkpt><trkpt lat="40.112795414635066" lon="9.392948113299447"><ele>1039.3333333333333</ele><time>2026-04-29T12:04:17.884Z</time></trkpt><trkpt lat="40.11276972618149" lon="9.392862564083496"><ele>1038.5</ele><time>2026-04-29T12:04:18.884Z</time></trkpt><trkpt lat="40.11273236345276" lon="9.392770565340806"><ele>1037.6666666666665</ele><time>2026-04-29T12:04:19.884Z</time></trkpt><trkpt lat="40.11269328597057" lon="9.392676505520246"><ele>1036.8333333333333</ele><time>2026-04-29T12:04:20.884Z</time></trkpt><trkpt lat="40.11265479922655" lon="9.392584870892922"><ele>1036.0</ele><time>2026-04-29T12:04:21.884Z</time></trkpt><trkpt lat="40.112623229646736" lon="9.39249367321306"><ele>1036.0</ele><time>2026-04-29T12:04:22.884Z</time></trkpt><trkpt lat="40.11258930800889" lon="9.39240456875653"><ele>1036.0</ele><time>2026-04-29T12:04:23.884Z</time></trkpt><trkpt lat="40.11256322372608" lon="9.392324978174363"><ele>1036.0</ele><time>2026-04-29T12:04:24.884Z</time></trkpt><trkpt lat="40.11254561561518" lon="9.392244111740707"><ele>1036.0</ele><time>2026-04-29T12:04:25.884Z</time></trkpt><trkpt lat="40.11254862445707" lon="9.392099214504627"><ele>1036.0</ele><time>2026-04-29T12:04:27.884Z</time></trkpt><trkpt lat="40.11257330457229" lon="9.392019662866371"><ele>1036.0</ele><time>2026-04-29T12:04:28.884Z</time></trkpt><trkpt lat="40.112605699584584" lon="9.391936806221803"><ele>1036.0</ele><time>2026-04-29T12:04:29.884Z</time></trkpt><trkpt lat="40.11263343925286" lon="9.391844171752497"><ele>1036.0</ele><time>2026-04-29T12:04:30.884Z</time></trkpt><trkpt lat="40.11264908784849" lon="9.391749294075327"><ele>1036.0</ele><time>2026-04-29T12:04:31.884Z</time></trkpt><trkpt lat="40.112644894885946" lon="9.391661749722003"><ele>1036.0</ele><time>2026-04-29T12:04:32.884Z</time></trkpt><trkpt lat="40.11262202446915" lon="9.391583236645058"><ele>1036.0</ele><time>2026-04-29T12:04:33.884Z</time></trkpt><trkpt lat="40.11258812763255" lon="9.391512258468358"><ele>1036.0</ele><time>2026-04-29T12:04:34.884Z</time></trkpt><trkpt lat="40.11254311473078" lon="9.391453376020376"><ele>1036.0</ele><time>2026-04-29T12:04:35.884Z</time></trkpt><trkpt lat="40.112490769664326" lon="9.391398727476282"><ele>1036.8333333333333</ele><time>2026-04-29T12:04:36.884Z</time></trkpt><trkpt lat="40.11243684850059" lon="9.391338928954942"><ele>1037.6666666666665</ele><time>2026-04-29T12:04:37.884Z</time></trkpt><trkpt lat="40.11238392104834" lon="9.3912696725434"><ele>1038.5</ele><time>2026-04-29T12:04:38.884Z</time></trkpt><trkpt lat="40.11232927649472" lon="9.391202790896243"><ele>1039.3333333333333</ele><time>2026-04-29T12:04:39.884Z</time></trkpt><trkpt lat="40.11226662201569" lon="9.39113250892152"><ele>1040.1666666666667</ele><time>2026-04-29T12:04:40.884Z</time></trkpt><trkpt lat="40.112200989806254" lon="9.391064674307588"><ele>1041.0</ele><time>2026-04-29T12:04:41.884Z</time></trkpt><trkpt lat="40.11214131641156" lon="9.390995032200523"><ele>1043.142857142857</ele><time>2026-04-29T12:04:42.883Z</time></trkpt><trkpt lat="40.11208678497624" lon="9.390922215316172"><ele>1045.2857142857144</ele><time>2026-04-29T12:04:43.883Z</time></trkpt><trkpt lat="40.112040626384" lon="9.390847998225802"><ele>1047.4285714285716</ele><time>2026-04-29T12:04:44.883Z</time></trkpt><trkpt lat="40.111992432779225" lon="9.390777782564307"><ele>1049.5714285714287</ele><time>2026-04-29T12:04:45.883Z</time></trkpt><trkpt lat="40.11194466265945" lon="9.390706418968062"><ele>1051.7142857142858</ele><time>2026-04-29T12:04:46.883Z</time></trkpt><trkpt lat="40.11190216728045" lon="9.39062599088077"><ele>1053.857142857143</ele><time>2026-04-29T12:04:47.884Z</time></trkpt><trkpt lat="40.111862685093385" lon="9.390539590402337"><ele>1056.0</ele><time>2026-04-29T12:04:48.883Z</time></trkpt><trkpt lat="40.11182568812938" lon="9.390469596169575"><ele>1056.6666666666667</ele><time>2026-04-29T12:04:49.883Z</time></trkpt><trkpt lat="40.111783599708254" lon="9.390392351334468"><ele>1057.3333333333333</ele><time>2026-04-29T12:04:50.883Z</time></trkpt><trkpt lat="40.111738755554704" lon="9.390306913486842"><ele>1058.0</ele><time>2026-04-29T12:04:51.883Z</time></trkpt><trkpt lat="40.11170172275216" lon="9.390219917224512"><ele>1058.6666666666665</ele><time>2026-04-29T12:04:52.883Z</time></trkpt><trkpt lat="40.11168089868887" lon="9.39013518928215"><ele>1059.3333333333333</ele><time>2026-04-29T12:04:53.883Z</time></trkpt><trkpt lat="40.111666923219936" lon="9.389982962279468"><ele>1060.0</ele><time>2026-04-29T12:04:55.883Z</time></trkpt><trkpt lat="40.111665516142516" lon="9.389896288415002"><ele>1060.0</ele><time>2026-04-29T12:04:56.883Z</time></trkpt><trkpt lat="40.11166449790568" lon="9.389805379603558"><ele>1060.0</ele><time>2026-04-29T12:04:57.883Z</time></trkpt><trkpt lat="40.111671772595955" lon="9.389716468108567"><ele>1060.0</ele><time>2026-04-29T12:04:58.883Z</time></trkpt><trkpt lat="40.1117132624878" lon="9.389567082729934"><ele>1060.0</ele><time>2026-04-29T12:05:00.883Z</time></trkpt><trkpt lat="40.11174314540371" lon="9.389488965489166"><ele>1060.0</ele><time>2026-04-29T12:05:01.883Z</time></trkpt><trkpt lat="40.11174999352691" lon="9.389384884487448"><ele>1060.0</ele><time>2026-04-29T12:05:03.883Z</time></trkpt><trkpt lat="40.111680792996566" lon="9.389351678719713"><ele>1061.0</ele><time>2026-04-29T12:05:05.883Z</time></trkpt><trkpt lat="40.11156849060747" lon="9.38935902163728"><ele>1062.0</ele><time>2026-04-29T12:05:07.883Z</time></trkpt><trkpt lat="40.1115082966795" lon="9.389399638287982"><ele>1063.0</ele><time>2026-04-29T12:05:08.883Z</time></trkpt><trkpt lat="40.11145330448489" lon="9.389461537016693"><ele>1064.0</ele><time>2026-04-29T12:05:09.883Z</time></trkpt><trkpt lat="40.11139950862481" lon="9.389531240991321"><ele>1065.0</ele><time>2026-04-29T12:05:10.883Z</time></trkpt><trkpt lat="40.11134201874471" lon="9.389608571362366"><ele>1066.0</ele><time>2026-04-29T12:05:11.883Z</time></trkpt><trkpt lat="40.111290012127874" lon="9.389667083032965"><ele>1067.4285714285713</ele><time>2026-04-29T12:05:12.883Z</time></trkpt><trkpt lat="40.11123060744087" lon="9.389718782512578"><ele>1068.8571428571427</ele><time>2026-04-29T12:05:13.883Z</time></trkpt><trkpt lat="40.11117106329522" lon="9.389756915084266"><ele>1070.2857142857142</ele><time>2026-04-29T12:05:14.883Z</time></trkpt><trkpt lat="40.11110719321538" lon="9.389784103744685"><ele>1071.7142857142858</ele><time>2026-04-29T12:05:15.883Z</time></trkpt><trkpt lat="40.111039987282865" lon="9.38979940540757"><ele>1073.1428571428573</ele><time>2026-04-29T12:05:16.883Z</time></trkpt><trkpt lat="40.110977145905494" lon="9.38982481863187"><ele>1074.5714285714287</ele><time>2026-04-29T12:05:17.883Z</time></trkpt><trkpt lat="40.11090342115207" lon="9.389928295376818"><ele>1076.0</ele><time>2026-04-29T12:05:19.883Z</time></trkpt><trkpt lat="40.11088198569819" lon="9.390089922040465"><ele>1076.0</ele><time>2026-04-29T12:05:21.883Z</time></trkpt><trkpt lat="40.110881093640046" lon="9.390177591002779"><ele>1076.0</ele><time>2026-04-29T12:05:22.883Z</time></trkpt><trkpt lat="40.110872680910205" lon="9.39026787025733"><ele>1076.0</ele><time>2026-04-29T12:05:23.883Z</time></trkpt><trkpt lat="40.11080460793425" lon="9.390407997991373"><ele>1076.0</ele><time>2026-04-29T12:05:25.883Z</time></trkpt><trkpt lat="40.110752991699435" lon="9.390456586111014"><ele>1076.0</ele><time>2026-04-29T12:05:26.883Z</time></trkpt><trkpt lat="40.110691960252254" lon="9.390487671139994"><ele>1076.0</ele><time>2026-04-29T12:05:27.883Z</time></trkpt><trkpt lat="40.11062536260706" lon="9.390507436844056"><ele>1077.6666666666667</ele><time>2026-04-29T12:05:28.883Z</time></trkpt><trkpt lat="40.11055210284821" lon="9.390526297623001"><ele>1079.3333333333335</ele><time>2026-04-29T12:05:29.883Z</time></trkpt><trkpt lat="40.11047652492355" lon="9.390548954863158"><ele>1081.0</ele><time>2026-04-29T12:05:30.883Z</time></trkpt><trkpt lat="40.110392962454156" lon="9.39058725695048"><ele>1082.6666666666667</ele><time>2026-04-29T12:05:31.883Z</time></trkpt><trkpt lat="40.11031051557198" lon="9.390636037782793"><ele>1084.3333333333333</ele><time>2026-04-29T12:05:32.883Z</time></trkpt><trkpt lat="40.110240382806005" lon="9.390691951379269"><ele>1086.0</ele><time>2026-04-29T12:05:33.883Z</time></trkpt><trkpt lat="40.11018144829717" lon="9.39075280036245"><ele>1086.0</ele><time>2026-04-29T12:05:34.883Z</time></trkpt><trkpt lat="40.11008989950475" lon="9.390829792742354"><ele>1086.0</ele><time>2026-04-29T12:05:36.883Z</time></trkpt><trkpt lat="40.10998886538499" lon="9.390829965448152"><ele>1086.0</ele><time>2026-04-29T12:05:38.883Z</time></trkpt><trkpt lat="40.109859808052455" lon="9.390745510580896"><ele>1086.0</ele><time>2026-04-29T12:05:40.883Z</time></trkpt><trkpt lat="40.10978444580252" lon="9.390681126490536"><ele>1086.0</ele><time>2026-04-29T12:05:41.883Z</time></trkpt><trkpt lat="40.10971126375836" lon="9.39062779255603"><ele>1087.0</ele><time>2026-04-29T12:05:42.883Z</time></trkpt><trkpt lat="40.10961883413303" lon="9.390580039731187"><ele>1088.0</ele><time>2026-04-29T12:05:43.883Z</time></trkpt><trkpt lat="40.109523944706055" lon="9.390527240256942"><ele>1089.0</ele><time>2026-04-29T12:05:44.883Z</time></trkpt><trkpt lat="40.109435021686245" lon="9.390475601326417"><ele>1090.0</ele><time>2026-04-29T12:05:45.883Z</time></trkpt><trkpt lat="40.10935095934168" lon="9.390431144236164"><ele>1091.0</ele><time>2026-04-29T12:05:46.883Z</time></trkpt><trkpt lat="40.109284570274916" lon="9.390412241894435"><ele>1091.0</ele><time>2026-04-29T12:05:47.883Z</time></trkpt><trkpt lat="40.10921075529919" lon="9.390427087740177"><ele>1091.0</ele><time>2026-04-29T12:05:49.883Z</time></trkpt><trkpt lat="40.109096918683626" lon="9.390502413916225"><ele>1091.0</ele><time>2026-04-29T12:05:51.883Z</time></trkpt><trkpt lat="40.10903033586904" lon="9.39053713350791"><ele>1091.0</ele><time>2026-04-29T12:05:52.883Z</time></trkpt><trkpt lat="40.10895572898487" lon="9.390549294270944"><ele>1091.0</ele><time>2026-04-29T12:05:53.883Z</time></trkpt><trkpt lat="40.108876988915746" lon="9.390546174353075"><ele>1091.0</ele><time>2026-04-29T12:05:54.883Z</time></trkpt><trkpt lat="40.10880219580699" lon="9.390534912626018"><ele>1093.2</ele><time>2026-04-29T12:05:55.883Z</time></trkpt><trkpt lat="40.10871926793976" lon="9.39052967342354"><ele>1095.3999999999999</ele><time>2026-04-29T12:05:56.883Z</time></trkpt><trkpt lat="40.10864264306301" lon="9.390539591001083"><ele>1097.6</ele><time>2026-04-29T12:05:57.884Z</time></trkpt><trkpt lat="40.108551411619445" lon="9.39055431621803"><ele>1099.8</ele><time>2026-04-29T12:05:58.884Z</time></trkpt><trkpt lat="40.10845498232349" lon="9.390577462010624"><ele>1102.0</ele><time>2026-04-29T12:05:59.884Z</time></trkpt><trkpt lat="40.10835299850303" lon="9.390602343117541"><ele>1102.0</ele><time>2026-04-29T12:06:00.884Z</time></trkpt><trkpt lat="40.108251660449696" lon="9.390627252890107"><ele>1102.0</ele><time>2026-04-29T12:06:01.884Z</time></trkpt><trkpt lat="40.10815231987021" lon="9.390650290683517"><ele>1102.0</ele><time>2026-04-29T12:06:02.884Z</time></trkpt><trkpt lat="40.108049065652885" lon="9.390668019912919"><ele>1102.0</ele><time>2026-04-29T12:06:03.884Z</time></trkpt><trkpt lat="40.1079468828185" lon="9.3906838428649"><ele>1102.0</ele><time>2026-04-29T12:06:04.884Z</time></trkpt><trkpt lat="40.10784957746294" lon="9.39069690001723"><ele>1103.6666666666665</ele><time>2026-04-29T12:06:05.884Z</time></trkpt><trkpt lat="40.107764506799796" lon="9.390693615316845"><ele>1105.3333333333333</ele><time>2026-04-29T12:06:06.884Z</time></trkpt><trkpt lat="40.10768833210462" lon="9.390674679799993"><ele>1107.0</ele><time>2026-04-29T12:06:07.884Z</time></trkpt><trkpt lat="40.107612134348514" lon="9.390651866018283"><ele>1108.6666666666667</ele><time>2026-04-29T12:06:08.884Z</time></trkpt><trkpt lat="40.10754490482659" lon="9.39062922190272"><ele>1110.3333333333335</ele><time>2026-04-29T12:06:09.884Z</time></trkpt><trkpt lat="40.107468795819365" lon="9.390600547564926"><ele>1112.0</ele><time>2026-04-29T12:06:10.884Z</time></trkpt><trkpt lat="40.10738775732663" lon="9.390559408811136"><ele>1111.2</ele><time>2026-04-29T12:06:11.884Z</time></trkpt><trkpt lat="40.107303156631296" lon="9.390522814399946"><ele>1110.4</ele><time>2026-04-29T12:06:12.884Z</time></trkpt><trkpt lat="40.10721650142016" lon="9.390488981957306"><ele>1109.6</ele><time>2026-04-29T12:06:13.884Z</time></trkpt><trkpt lat="40.10712301743039" lon="9.390452031985864"><ele>1108.8</ele><time>2026-04-29T12:06:14.884Z</time></trkpt><trkpt lat="40.107025413770344" lon="9.390419791661097"><ele>1108.0</ele><time>2026-04-29T12:06:15.884Z</time></trkpt><trkpt lat="40.106940835984325" lon="9.390387544281777"><ele>1108.0</ele><time>2026-04-29T12:06:16.756Z</time></trkpt><trkpt lat="40.10685612736813" lon="9.390340753334991"><ele>1108.0</ele><time>2026-04-29T12:06:17.756Z</time></trkpt><trkpt lat="40.10676694668208" lon="9.3903100869148"><ele>1108.0</ele><time>2026-04-29T12:06:18.756Z</time></trkpt><trkpt lat="40.10666842087388" lon="9.390276207061738"><ele>1108.0</ele><time>2026-04-29T12:06:19.756Z</time></trkpt><trkpt lat="40.10656696784562" lon="9.390241320580111"><ele>1108.0</ele><time>2026-04-29T12:06:20.756Z</time></trkpt><trkpt lat="40.10647213118838" lon="9.390207643712241"><ele>1110.0</ele><time>2026-04-29T12:06:21.756Z</time></trkpt><trkpt lat="40.10636503820854" lon="9.390170696832541"><ele>1112.0</ele><time>2026-04-29T12:06:22.756Z</time></trkpt><trkpt lat="40.10625724637231" lon="9.390148668286104"><ele>1114.0</ele><time>2026-04-29T12:06:23.756Z</time></trkpt><trkpt lat="40.106146861429785" lon="9.390138462699607"><ele>1116.0</ele><time>2026-04-29T12:06:24.756Z</time></trkpt><trkpt lat="40.1060392514812" lon="9.390134442866694"><ele>1118.0</ele><time>2026-04-29T12:06:25.756Z</time></trkpt><trkpt lat="40.10593843020126" lon="9.390132270589772"><ele>1118.0</ele><time>2026-04-29T12:06:26.756Z</time></trkpt><trkpt lat="40.105835121646074" lon="9.390130139134692"><ele>1118.0</ele><time>2026-04-29T12:06:27.756Z</time></trkpt><trkpt lat="40.105731260790755" lon="9.390124514563762"><ele>1118.0</ele><time>2026-04-29T12:06:28.756Z</time></trkpt><trkpt lat="40.10562484584638" lon="9.390118462598746"><ele>1118.0</ele><time>2026-04-29T12:06:29.756Z</time></trkpt><trkpt lat="40.105518841992506" lon="9.3901119110127"><ele>1118.0</ele><time>2026-04-29T12:06:30.756Z</time></trkpt><trkpt lat="40.10540696146652" lon="9.390104996214928"><ele>1118.6</ele><time>2026-04-29T12:06:31.756Z</time></trkpt><trkpt lat="40.10529991373395" lon="9.390095642119979"><ele>1119.1999999999998</ele><time>2026-04-29T12:06:32.756Z</time></trkpt><trkpt lat="40.105201080136766" lon="9.390086187303911"><ele>1119.8</ele><time>2026-04-29T12:06:33.756Z</time></trkpt><trkpt lat="40.10509490839419" lon="9.390076547656452"><ele>1120.3999999999999</ele><time>2026-04-29T12:06:34.756Z</time></trkpt><trkpt lat="40.104984975413466" lon="9.390068704804815"><ele>1121.0</ele><time>2026-04-29T12:06:35.756Z</time></trkpt><trkpt lat="40.10487894323456" lon="9.390064159592923"><ele>1123.2</ele><time>2026-04-29T12:06:36.756Z</time></trkpt><trkpt lat="40.104769516284044" lon="9.390063196919503"><ele>1125.3999999999999</ele><time>2026-04-29T12:06:37.756Z</time></trkpt><trkpt lat="40.10466917247303" lon="9.390062117028283"><ele>1127.6</ele><time>2026-04-29T12:06:38.756Z</time></trkpt><trkpt lat="40.10456847785638" lon="9.390059430254462"><ele>1129.8</ele><time>2026-04-29T12:06:39.756Z</time></trkpt><trkpt lat="40.10447913909725" lon="9.390052245274738"><ele>1132.0</ele><time>2026-04-29T12:06:40.756Z</time></trkpt><trkpt lat="40.10441129349953" lon="9.390042371914722"><ele>1132.0</ele><time>2026-04-29T12:06:41.756Z</time></trkpt><trkpt lat="40.10434468359613" lon="9.390028578606858"><ele>1132.0</ele><time>2026-04-29T12:06:42.756Z</time></trkpt><trkpt lat="40.10427333638148" lon="9.390005667845715"><ele>1132.0</ele><time>2026-04-29T12:06:43.756Z</time></trkpt><trkpt lat="40.10417015118289" lon="9.389992908348118"><ele>1132.0</ele><time>2026-04-29T12:06:45.756Z</time></trkpt><trkpt lat="40.10411676243486" lon="9.389916918564827"><ele>1132.0</ele><time>2026-04-29T12:06:48.755Z</time></trkpt><trkpt lat="40.10413123488464" lon="9.389780200131915"><ele>1132.0</ele><time>2026-04-29T12:06:50.755Z</time></trkpt><trkpt lat="40.104158070245624" lon="9.389689026860902"><ele>1130.5</ele><time>2026-04-29T12:06:51.755Z</time></trkpt><trkpt lat="40.104166927804236" lon="9.389586115655137"><ele>1129.0</ele><time>2026-04-29T12:06:52.755Z</time></trkpt><trkpt lat="40.10416065740917" lon="9.38947960026407"><ele>1127.5</ele><time>2026-04-29T12:06:53.755Z</time></trkpt><trkpt lat="40.104138860270695" lon="9.389375112552099"><ele>1126.0</ele><time>2026-04-29T12:06:54.755Z</time></trkpt><trkpt lat="40.10410396010665" lon="9.389276232573932"><ele>1124.5</ele><time>2026-04-29T12:06:55.755Z</time></trkpt><trkpt lat="40.104056106158154" lon="9.38918381790588"><ele>1123.0</ele><time>2026-04-29T12:06:56.755Z</time></trkpt><trkpt lat="40.10399896615478" lon="9.38909017046356"><ele>1125.6</ele><time>2026-04-29T12:06:57.755Z</time></trkpt><trkpt lat="40.103942099018894" lon="9.389000676803368"><ele>1128.1999999999998</ele><time>2026-04-29T12:06:58.755Z</time></trkpt><trkpt lat="40.10388576289451" lon="9.388915527866772"><ele>1130.8</ele><time>2026-04-29T12:06:59.755Z</time></trkpt><trkpt lat="40.10382266904837" lon="9.38882467084964"><ele>1133.3999999999999</ele><time>2026-04-29T12:07:00.755Z</time></trkpt><trkpt lat="40.103759838151646" lon="9.388734192072194"><ele>1136.0</ele><time>2026-04-29T12:07:01.755Z</time></trkpt><trkpt lat="40.103699313167496" lon="9.388636316962808"><ele>1136.0</ele><time>2026-04-29T12:07:02.755Z</time></trkpt><trkpt lat="40.10364249636228" lon="9.388532278465814"><ele>1136.0</ele><time>2026-04-29T12:07:03.755Z</time></trkpt><trkpt lat="40.103578483988535" lon="9.388441124368082"><ele>1136.0</ele><time>2026-04-29T12:07:04.755Z</time></trkpt><trkpt lat="40.10353789697731" lon="9.388330537622632"><ele>1136.0</ele><time>2026-04-29T12:07:05.755Z</time></trkpt><trkpt lat="40.10349334654952" lon="9.388218793181856"><ele>1136.0</ele><time>2026-04-29T12:07:06.755Z</time></trkpt><trkpt lat="40.10344493722179" lon="9.38811698966024"><ele>1136.0</ele><time>2026-04-29T12:07:07.755Z</time></trkpt><trkpt lat="40.103400675557964" lon="9.388021941340558"><ele>1136.0</ele><time>2026-04-29T12:07:08.755Z</time></trkpt><trkpt lat="40.10335446946267" lon="9.387941242679934"><ele>1136.0</ele><time>2026-04-29T12:07:09.754Z</time></trkpt><trkpt lat="40.103293254397116" lon="9.387864391162465"><ele>1136.0</ele><time>2026-04-29T12:07:10.754Z</time></trkpt><trkpt lat="40.10322558512039" lon="9.387804199728608"><ele>1136.0</ele><time>2026-04-29T12:07:11.754Z</time></trkpt><trkpt lat="40.103147441691455" lon="9.387759000937297"><ele>1136.0</ele><time>2026-04-29T12:07:12.754Z</time></trkpt><trkpt lat="40.10305782963297" lon="9.387724703637685"><ele>1136.3999999999999</ele><time>2026-04-29T12:07:13.754Z</time></trkpt><trkpt lat="40.10298192883376" lon="9.387704123625756"><ele>1136.8</ele><time>2026-04-29T12:07:14.754Z</time></trkpt><trkpt lat="40.10288850219204" lon="9.387731445179698"><ele>1137.1999999999998</ele><time>2026-04-29T12:07:16.754Z</time></trkpt><trkpt lat="40.102796358929474" lon="9.387855777101532"><ele>1137.6</ele><time>2026-04-29T12:07:18.754Z</time></trkpt><trkpt lat="40.1027455893597" lon="9.387946082993626"><ele>1138.0</ele><time>2026-04-29T12:07:19.754Z</time></trkpt><trkpt lat="40.10270145975856" lon="9.388048972409237"><ele>1138.0</ele><time>2026-04-29T12:07:20.754Z</time></trkpt><trkpt lat="40.10265698210995" lon="9.38815808001891"><ele>1138.0</ele><time>2026-04-29T12:07:21.754Z</time></trkpt><trkpt lat="40.10261363132266" lon="9.388265106527847"><ele>1138.0</ele><time>2026-04-29T12:07:22.754Z</time></trkpt><trkpt lat="40.10256674982254" lon="9.38836576738963"><ele>1138.0</ele><time>2026-04-29T12:07:23.754Z</time></trkpt><trkpt lat="40.10251240233544" lon="9.388453302333277"><ele>1138.0</ele><time>2026-04-29T12:07:24.754Z</time></trkpt><trkpt lat="40.10245738305868" lon="9.38853256598758"><ele>1138.0</ele><time>2026-04-29T12:07:25.754Z</time></trkpt><trkpt lat="40.10239662808473" lon="9.388613651239469"><ele>1138.8333333333333</ele><time>2026-04-29T12:07:26.754Z</time></trkpt><trkpt lat="40.10232236677956" lon="9.388693464345415"><ele>1139.6666666666665</ele><time>2026-04-29T12:07:27.754Z</time></trkpt><trkpt lat="40.10225348370562" lon="9.388771500830694"><ele>1140.5</ele><time>2026-04-29T12:07:28.754Z</time></trkpt><trkpt lat="40.1021876560846" lon="9.3888433041666"><ele>1141.3333333333333</ele><time>2026-04-29T12:07:29.754Z</time></trkpt><trkpt lat="40.102115574413354" lon="9.388878871497107"><ele>1142.1666666666667</ele><time>2026-04-29T12:07:30.754Z</time></trkpt><trkpt lat="40.102040789639524" lon="9.38894020634506"><ele>1143.0</ele><time>2026-04-29T12:07:31.754Z</time></trkpt><trkpt lat="40.101971327559724" lon="9.38899941882817"><ele>1143.0</ele><time>2026-04-29T12:07:32.754Z</time></trkpt><trkpt lat="40.10190220950394" lon="9.38906727183361"><ele>1143.0</ele><time>2026-04-29T12:07:33.754Z</time></trkpt><trkpt lat="40.10183158782588" lon="9.389148290676337"><ele>1143.0</ele><time>2026-04-29T12:07:34.754Z</time></trkpt><trkpt lat="40.101757566100915" lon="9.389226183508729"><ele>1143.0</ele><time>2026-04-29T12:07:35.754Z</time></trkpt><trkpt lat="40.10168017594749" lon="9.389291490891656"><ele>1143.0</ele><time>2026-04-29T12:07:36.754Z</time></trkpt><trkpt lat="40.101604242440885" lon="9.389344258110626"><ele>1141.8</ele><time>2026-04-29T12:07:37.754Z</time></trkpt><trkpt lat="40.10152846914106" lon="9.389409999989981"><ele>1140.6</ele><time>2026-04-29T12:07:38.754Z</time></trkpt><trkpt lat="40.10143223870814" lon="9.389431851627624"><ele>1139.4</ele><time>2026-04-29T12:07:39.754Z</time></trkpt><trkpt lat="40.1013400460486" lon="9.389475276667932"><ele>1138.2</ele><time>2026-04-29T12:07:40.754Z</time></trkpt><trkpt lat="40.10124830699389" lon="9.389520966139424"><ele>1137.0</ele><time>2026-04-29T12:07:41.754Z</time></trkpt><trkpt lat="40.10116346948709" lon="9.389579870304155"><ele>1137.0</ele><time>2026-04-29T12:07:42.754Z</time></trkpt><trkpt lat="40.10108720385385" lon="9.38960297953857"><ele>1137.0</ele><time>2026-04-29T12:07:43.754Z</time></trkpt><trkpt lat="40.10101853264537" lon="9.389587106598938"><ele>1137.0</ele><time>2026-04-29T12:07:44.754Z</time></trkpt><trkpt lat="40.100913162855335" lon="9.389641972788937"><ele>1137.0</ele><time>2026-04-29T12:07:46.754Z</time></trkpt><trkpt lat="40.10087826935028" lon="9.389714034425655"><ele>1137.0</ele><time>2026-04-29T12:07:47.754Z</time></trkpt><trkpt lat="40.10083923233027" lon="9.38977898783426"><ele>1137.0</ele><time>2026-04-29T12:07:48.754Z</time></trkpt><trkpt lat="40.10079547978498" lon="9.389851785803016"><ele>1138.8</ele><time>2026-04-29T12:07:49.754Z</time></trkpt><trkpt lat="40.100755418024846" lon="9.389923348662178"><ele>1140.6</ele><time>2026-04-29T12:07:50.754Z</time></trkpt><trkpt lat="40.100697645437386" lon="9.390062562458489"><ele>1142.3999999999999</ele><time>2026-04-29T12:07:52.754Z</time></trkpt><trkpt lat="40.10068633833956" lon="9.390144426406016"><ele>1144.2</ele><time>2026-04-29T12:07:53.754Z</time></trkpt><trkpt lat="40.10070336954122" lon="9.390311638087674"><ele>1146.0</ele><time>2026-04-29T12:07:55.754Z</time></trkpt><trkpt lat="40.10072378803551" lon="9.390410096866118"><ele>1144.142857142857</ele><time>2026-04-29T12:07:56.754Z</time></trkpt><trkpt lat="40.10070427661145" lon="9.390517353967356"><ele>1142.2857142857144</ele><time>2026-04-29T12:07:57.754Z</time></trkpt><trkpt lat="40.10070399043063" lon="9.390622692250483"><ele>1140.4285714285716</ele><time>2026-04-29T12:07:58.754Z</time></trkpt><trkpt lat="40.100705934560914" lon="9.390719904611885"><ele>1138.5714285714287</ele><time>2026-04-29T12:07:59.754Z</time></trkpt><trkpt lat="40.100709637296504" lon="9.390812613411484"><ele>1136.7142857142858</ele><time>2026-04-29T12:08:00.754Z</time></trkpt><trkpt lat="40.10071466401313" lon="9.39089731533835"><ele>1134.857142857143</ele><time>2026-04-29T12:08:01.754Z</time></trkpt><trkpt lat="40.10071999798225" lon="9.390987193033057"><ele>1133.0</ele><time>2026-04-29T12:08:02.754Z</time></trkpt><trkpt lat="40.1007311886239" lon="9.391083887685427"><ele>1132.857142857143</ele><time>2026-04-29T12:08:03.754Z</time></trkpt><trkpt lat="40.10077437728976" lon="9.39117695663192"><ele>1132.7142857142858</ele><time>2026-04-29T12:08:04.754Z</time></trkpt><trkpt lat="40.10080146526975" lon="9.391264453267233"><ele>1132.5714285714287</ele><time>2026-04-29T12:08:05.754Z</time></trkpt><trkpt lat="40.10081535397128" lon="9.391351350935322"><ele>1132.4285714285716</ele><time>2026-04-29T12:08:06.754Z</time></trkpt><trkpt lat="40.10086420041819" lon="9.39142181322846"><ele>1132.2857142857144</ele><time>2026-04-29T12:08:07.754Z</time></trkpt><trkpt lat="40.10093214143317" lon="9.391459200157028"><ele>1132.142857142857</ele><time>2026-04-29T12:08:08.754Z</time></trkpt><trkpt lat="40.10098164565762" lon="9.391517712633684"><ele>1132.0</ele><time>2026-04-29T12:08:09.754Z</time></trkpt><trkpt lat="40.10105599671486" lon="9.391528421714254"><ele>1132.0</ele><time>2026-04-29T12:08:10.754Z</time></trkpt><trkpt lat="40.101116470194206" lon="9.391571720926612"><ele>1132.0</ele><time>2026-04-29T12:08:11.754Z</time></trkpt><trkpt lat="40.10121136762665" lon="9.391666580547783"><ele>1132.0</ele><time>2026-04-29T12:08:13.754Z</time></trkpt><trkpt lat="40.10127495174307" lon="9.39179758564391"><ele>1132.0</ele><time>2026-04-29T12:08:15.754Z</time></trkpt><trkpt lat="40.10130856399422" lon="9.391879426377198"><ele>1132.0</ele><time>2026-04-29T12:08:16.754Z</time></trkpt><trkpt lat="40.1013352822356" lon="9.391971512686164"><ele>1132.0</ele><time>2026-04-29T12:08:17.754Z</time></trkpt><trkpt lat="40.10135424954411" lon="9.392070656682106"><ele>1132.0</ele><time>2026-04-29T12:08:18.754Z</time></trkpt><trkpt lat="40.101377243904906" lon="9.392176567448933"><ele>1132.0</ele><time>2026-04-29T12:08:19.754Z</time></trkpt><trkpt lat="40.10139948671326" lon="9.392270414005802"><ele>1132.0</ele><time>2026-04-29T12:08:20.754Z</time></trkpt><trkpt lat="40.10142025716464" lon="9.392361199153957"><ele>1132.0</ele><time>2026-04-29T12:08:21.754Z</time></trkpt><trkpt lat="40.10143902141083" lon="9.392446727948789"><ele>1132.0</ele><time>2026-04-29T12:08:22.754Z</time></trkpt><trkpt lat="40.10145658115184" lon="9.392526764934722"><ele>1132.0</ele><time>2026-04-29T12:08:23.754Z</time></trkpt><trkpt lat="40.10148061173649" lon="9.392691940790598"><ele>1130.3333333333333</ele><time>2026-04-29T12:08:25.754Z</time></trkpt><trkpt lat="40.101486487395476" lon="9.392774516107686"><ele>1128.6666666666665</ele><time>2026-04-29T12:08:26.754Z</time></trkpt><trkpt lat="40.1014725710116" lon="9.39288445026211"><ele>1127.0</ele><time>2026-04-29T12:08:28.754Z</time></trkpt><trkpt lat="40.101429409943044" lon="9.392958825722857"><ele>1125.3333333333333</ele><time>2026-04-29T12:08:30.754Z</time></trkpt><trkpt lat="40.10136974763687" lon="9.392988897187754"><ele>1123.6666666666667</ele><time>2026-04-29T12:08:32.754Z</time></trkpt><trkpt lat="40.101289131407654" lon="9.392978102701944"><ele>1122.0</ele><time>2026-04-29T12:08:34.754Z</time></trkpt><trkpt lat="40.1011664946152" lon="9.392982767192985"><ele>1123.8333333333333</ele><time>2026-04-29T12:08:36.754Z</time></trkpt><trkpt lat="40.10105679825074" lon="9.393059647791071"><ele>1125.6666666666667</ele><time>2026-04-29T12:08:38.754Z</time></trkpt><trkpt lat="40.10100408203309" lon="9.393113303065459"><ele>1127.5</ele><time>2026-04-29T12:08:39.754Z</time></trkpt><trkpt lat="40.10095051391683" lon="9.393166491839025"><ele>1129.3333333333335</ele><time>2026-04-29T12:08:40.754Z</time></trkpt><trkpt lat="40.100891101795455" lon="9.393225483292218"><ele>1131.1666666666667</ele><time>2026-04-29T12:08:41.753Z</time></trkpt><trkpt lat="40.10083192746107" lon="9.39328423839814"><ele>1133.0</ele><time>2026-04-29T12:08:42.753Z</time></trkpt><trkpt lat="40.10077917151868" lon="9.393339071548562"><ele>1132.0</ele><time>2026-04-29T12:08:43.753Z</time></trkpt><trkpt lat="40.10072275219342" lon="9.393401726121857"><ele>1131.0</ele><time>2026-04-29T12:08:44.753Z</time></trkpt><trkpt lat="40.10067518818418" lon="9.393468481306014"><ele>1130.0</ele><time>2026-04-29T12:08:45.753Z</time></trkpt><trkpt lat="40.100616106132804" lon="9.393560703840372"><ele>1129.0</ele><time>2026-04-29T12:08:47.753Z</time></trkpt><trkpt lat="40.10053436379687" lon="9.393580427467635"><ele>1128.0</ele><time>2026-04-29T12:08:49.753Z</time></trkpt><trkpt lat="40.100402348127005" lon="9.393582093457988"><ele>1128.0</ele><time>2026-04-29T12:08:51.753Z</time></trkpt><trkpt lat="40.10032103010145" lon="9.393572121679098"><ele>1128.0</ele><time>2026-04-29T12:08:52.753Z</time></trkpt><trkpt lat="40.1002394132426" lon="9.393554017016617"><ele>1128.0</ele><time>2026-04-29T12:08:53.752Z</time></trkpt><trkpt lat="40.10016674133718" lon="9.393538182652277"><ele>1128.0</ele><time>2026-04-29T12:08:54.752Z</time></trkpt><trkpt lat="40.10005287989614" lon="9.393528267165356"><ele>1128.0</ele><time>2026-04-29T12:08:56.752Z</time></trkpt><trkpt lat="40.099958519751446" lon="9.393571692572378"><ele>1127.1666666666667</ele><time>2026-04-29T12:08:58.753Z</time></trkpt><trkpt lat="40.09990587323562" lon="9.39363778908909"><ele>1126.3333333333333</ele><time>2026-04-29T12:08:59.753Z</time></trkpt><trkpt lat="40.099843404841764" lon="9.393707830215531"><ele>1125.5</ele><time>2026-04-29T12:09:00.752Z</time></trkpt><trkpt lat="40.099784035467756" lon="9.39378381978993"><ele>1124.6666666666665</ele><time>2026-04-29T12:09:01.752Z</time></trkpt><trkpt lat="40.09972942038488" lon="9.393881493331303"><ele>1123.8333333333333</ele><time>2026-04-29T12:09:02.752Z</time></trkpt><trkpt lat="40.09968949056191" lon="9.393973842253946"><ele>1123.0</ele><time>2026-04-29T12:09:03.752Z</time></trkpt><trkpt lat="40.09965575081938" lon="9.394056969872189"><ele>1123.0</ele><time>2026-04-29T12:09:04.752Z</time></trkpt><trkpt lat="40.09962929404238" lon="9.394132075983826"><ele>1123.0</ele><time>2026-04-29T12:09:05.752Z</time></trkpt><trkpt lat="40.099575238018254" lon="9.394240493859288"><ele>1123.0</ele><time>2026-04-29T12:09:07.752Z</time></trkpt><trkpt lat="40.099483527697316" lon="9.394305149730872"><ele>1123.0</ele><time>2026-04-29T12:09:09.752Z</time></trkpt><trkpt lat="40.09942188954189" lon="9.394355961636823"><ele>1123.0</ele><time>2026-04-29T12:09:10.751Z</time></trkpt><trkpt lat="40.0993583424024" lon="9.394406185359257"><ele>1123.0</ele><time>2026-04-29T12:09:11.751Z</time></trkpt><trkpt lat="40.099291898033115" lon="9.394457204880602"><ele>1123.0</ele><time>2026-04-29T12:09:12.751Z</time></trkpt><trkpt lat="40.09922488565873" lon="9.394501532720886"><ele>1123.0</ele><time>2026-04-29T12:09:13.751Z</time></trkpt><trkpt lat="40.099162727357275" lon="9.394534889234457"><ele>1123.0</ele><time>2026-04-29T12:09:14.751Z</time></trkpt><trkpt lat="40.099031040855806" lon="9.394597473298006"><ele>1123.0</ele><time>2026-04-29T12:09:16.751Z</time></trkpt><trkpt lat="40.09895927944579" lon="9.39463944229361"><ele>1123.0</ele><time>2026-04-29T12:09:17.751Z</time></trkpt><trkpt lat="40.09888875913965" lon="9.39468416154173"><ele>1123.0</ele><time>2026-04-29T12:09:18.751Z</time></trkpt><trkpt lat="40.09882566564383" lon="9.394725624826917"><ele>1123.6666666666665</ele><time>2026-04-29T12:09:19.751Z</time></trkpt><trkpt lat="40.09876392073906" lon="9.394768933789184"><ele>1124.3333333333333</ele><time>2026-04-29T12:09:20.751Z</time></trkpt><trkpt lat="40.0987002479155" lon="9.394817381064025"><ele>1125.0</ele><time>2026-04-29T12:09:21.751Z</time></trkpt><trkpt lat="40.09863763494906" lon="9.394867318378969"><ele>1125.6666666666667</ele><time>2026-04-29T12:09:22.751Z</time></trkpt><trkpt lat="40.098577052340566" lon="9.39492035382075"><ele>1126.3333333333335</ele><time>2026-04-29T12:09:23.751Z</time></trkpt><trkpt lat="40.098480458243316" lon="9.395007638935539"><ele>1127.0</ele><time>2026-04-29T12:09:25.751Z</time></trkpt><trkpt lat="40.09841304956718" lon="9.395073585565171"><ele>1127.0</ele><time>2026-04-29T12:09:27.751Z</time></trkpt><trkpt lat="40.09833428760043" lon="9.395145682597699"><ele>1127.0</ele><time>2026-04-29T12:09:29.751Z</time></trkpt><trkpt lat="40.09822376653898" lon="9.395238034649786"><ele>1127.0</ele><time>2026-04-29T12:09:31.751Z</time></trkpt><trkpt lat="40.0981643696087" lon="9.395283247874106"><ele>1127.0</ele><time>2026-04-29T12:09:32.751Z</time></trkpt><trkpt lat="40.09810393279822" lon="9.39532473532647"><ele>1127.0</ele><time>2026-04-29T12:09:33.751Z</time></trkpt><trkpt lat="40.09803808675066" lon="9.395366231666912"><ele>1127.0</ele><time>2026-04-29T12:09:34.751Z</time></trkpt><trkpt lat="40.09796744358673" lon="9.395409862122039"><ele>1126.5</ele><time>2026-04-29T12:09:35.751Z</time></trkpt><trkpt lat="40.09789107919991" lon="9.39545283159283"><ele>1126.0</ele><time>2026-04-29T12:09:36.751Z</time></trkpt><trkpt lat="40.09781746869421" lon="9.395487300386566"><ele>1125.5</ele><time>2026-04-29T12:09:37.751Z</time></trkpt><trkpt lat="40.09774034745553" lon="9.395514699907112"><ele>1125.0</ele><time>2026-04-29T12:09:38.751Z</time></trkpt><trkpt lat="40.09767167943622" lon="9.39552920439995"><ele>1124.5</ele><time>2026-04-29T12:09:39.751Z</time></trkpt><trkpt lat="40.097567465387" lon="9.39554853729407"><ele>1124.0</ele><time>2026-04-29T12:09:41.751Z</time></trkpt><trkpt lat="40.09749451129846" lon="9.395619440821283"><ele>1123.6666666666667</ele><time>2026-04-29T12:09:43.751Z</time></trkpt><trkpt lat="40.097446785430805" lon="9.395714130246876"><ele>1123.3333333333335</ele><time>2026-04-29T12:09:45.751Z</time></trkpt><trkpt lat="40.097434497482105" lon="9.395811805349638"><ele>1123.0</ele><time>2026-04-29T12:09:47.751Z</time></trkpt><trkpt lat="40.097415650332536" lon="9.39590597666021"><ele>1122.6666666666667</ele><time>2026-04-29T12:09:50.751Z</time></trkpt><trkpt lat="40.097375735858336" lon="9.39598533644985"><ele>1122.3333333333333</ele><time>2026-04-29T12:09:53.751Z</time></trkpt><trkpt lat="40.097307486766525" lon="9.395933538900794"><ele>1122.0</ele><time>2026-04-29T12:09:56.751Z</time></trkpt><trkpt lat="40.097228862138614" lon="9.395932815918009"><ele>1119.0</ele><time>2026-04-29T12:09:59.751Z</time></trkpt><trkpt lat="40.097160733141386" lon="9.395933097275442"><ele>1116.0</ele><time>2026-04-29T12:10:02.751Z</time></trkpt><trkpt lat="40.09709719568059" lon="9.395891321328667"><ele>1113.0</ele><time>2026-04-29T12:10:05.751Z</time></trkpt><trkpt lat="40.09703775044562" lon="9.395799216596274"><ele>1110.0</ele><time>2026-04-29T12:10:08.751Z</time></trkpt><trkpt lat="40.09699773048243" lon="9.395726678254682"><ele>1107.0</ele><time>2026-04-29T12:10:10.751Z</time></trkpt><trkpt lat="40.09694728045465" lon="9.395647416183452"><ele>1104.0</ele><time>2026-04-29T12:10:12.751Z</time></trkpt><trkpt lat="40.096930546487656" lon="9.395542571002112"><ele>1105.0</ele><time>2026-04-29T12:10:14.751Z</time></trkpt><trkpt lat="40.096923234985596" lon="9.395442091643455"><ele>1106.0</ele><time>2026-04-29T12:10:16.751Z</time></trkpt><trkpt lat="40.09689798365034" lon="9.395341302016636"><ele>1107.0</ele><time>2026-04-29T12:10:18.751Z</time></trkpt><trkpt lat="40.09683157367817" lon="9.395265310640557"><ele>1108.0</ele><time>2026-04-29T12:10:20.751Z</time></trkpt><trkpt lat="40.09675082853034" lon="9.3951821254113"><ele>1109.0</ele><time>2026-04-29T12:10:22.751Z</time></trkpt><trkpt lat="40.096660569532965" lon="9.395105815692682"><ele>1107.6000000000001</ele><time>2026-04-29T12:10:24.751Z</time></trkpt><trkpt lat="40.09657834377749" lon="9.395014695621999"><ele>1106.2</ele><time>2026-04-29T12:10:26.751Z</time></trkpt><trkpt lat="40.096490362545175" lon="9.394939998757485"><ele>1104.8000000000002</ele><time>2026-04-29T12:10:28.751Z</time></trkpt><trkpt lat="40.09642363071372" lon="9.394863501224378"><ele>1103.4</ele><time>2026-04-29T12:10:30.751Z</time></trkpt><trkpt lat="40.09635670042319" lon="9.394840377363726"><ele>1102.0</ele><time>2026-04-29T12:10:32.751Z</time></trkpt><trkpt lat="40.0962685918205" lon="9.394954104598753"><ele>1101.9999999999998</ele><time>2026-04-29T12:10:36.75Z</time></trkpt><trkpt lat="40.09622674198653" lon="9.39502623206276"><ele>1102.0</ele><time>2026-04-29T12:10:38.75Z</time></trkpt><trkpt lat="40.0961814424722" lon="9.395129592906267"><ele>1102.0</ele><time>2026-04-29T12:10:41.75Z</time></trkpt><trkpt lat="40.09614063137313" lon="9.39521568224186"><ele>1102.0</ele><time>2026-04-29T12:10:44.75Z</time></trkpt><trkpt lat="40.09610553769106" lon="9.395284496546532"><ele>1102.0</ele><time>2026-04-29T12:10:46.75Z</time></trkpt><trkpt lat="40.09606328419607" lon="9.395367350323827"><ele>1101.9999999999998</ele><time>2026-04-29T12:10:48.75Z</time></trkpt><trkpt lat="40.09602423738061" lon="9.39544391624575"><ele>1102.0</ele><time>2026-04-29T12:10:50.75Z</time></trkpt><trkpt lat="40.09598754192344" lon="9.395513575251206"><ele>1100.3333333333333</ele><time>2026-04-29T12:10:52.75Z</time></trkpt><trkpt lat="40.09593572445213" lon="9.395602802664174"><ele>1098.6666666666665</ele><time>2026-04-29T12:10:55.75Z</time></trkpt><trkpt lat="40.09589873364314" lon="9.395676453812172"><ele>1097.0</ele><time>2026-04-29T12:10:58.75Z</time></trkpt><trkpt lat="40.09584533085743" lon="9.39575412047332"><ele>1095.3333333333333</ele><time>2026-04-29T12:11:01.749Z</time></trkpt><trkpt lat="40.09578781671386" lon="9.395833841158808"><ele>1093.6666666666667</ele><time>2026-04-29T12:11:03.75Z</time></trkpt><trkpt lat="40.09575102839182" lon="9.395933588198025"><ele>1092.0</ele><time>2026-04-29T12:11:05.75Z</time></trkpt><trkpt lat="40.09570408031981" lon="9.396018686835315"><ele>1090.5</ele><time>2026-04-29T12:11:07.749Z</time></trkpt><trkpt lat="40.095651767643304" lon="9.396104705941031"><ele>1089.0</ele><time>2026-04-29T12:11:09.749Z</time></trkpt><trkpt lat="40.095593499179486" lon="9.396181688260468"><ele>1087.5</ele><time>2026-04-29T12:11:11.749Z</time></trkpt><trkpt lat="40.09551616589705" lon="9.396248945396318"><ele>1086.0</ele><time>2026-04-29T12:11:13.748Z</time></trkpt><trkpt lat="40.095433973076595" lon="9.396306422995394"><ele>1084.5</ele><time>2026-04-29T12:11:15.748Z</time></trkpt><trkpt lat="40.09534439225373" lon="9.3963174390471"><ele>1083.0</ele><time>2026-04-29T12:11:17.748Z</time></trkpt><trkpt lat="40.095255548310675" lon="9.39625871293014"><ele>1083.0</ele><time>2026-04-29T12:11:19.748Z</time></trkpt><trkpt lat="40.09517896219877" lon="9.396237667631901"><ele>1083.0</ele><time>2026-04-29T12:11:21.748Z</time></trkpt><trkpt lat="40.09511242142105" lon="9.396245254610367"><ele>1083.0</ele><time>2026-04-29T12:11:23.748Z</time></trkpt><trkpt lat="40.09505646008948" lon="9.396328639300503"><ele>1083.0</ele><time>2026-04-29T12:11:26.748Z</time></trkpt><trkpt lat="40.09504471543769" lon="9.396444787359432"><ele>1083.0</ele><time>2026-04-29T12:11:28.748Z</time></trkpt><trkpt lat="40.09502537310546" lon="9.396597153834204"><ele>1083.0</ele><time>2026-04-29T12:11:30.748Z</time></trkpt><trkpt lat="40.094999028083144" lon="9.396672520201724"><ele>1081.0</ele><time>2026-04-29T12:11:31.748Z</time></trkpt><trkpt lat="40.09493055034915" lon="9.396799170091997"><ele>1079.0</ele><time>2026-04-29T12:11:33.748Z</time></trkpt><trkpt lat="40.09486708780742" lon="9.396916664117523"><ele>1077.0</ele><time>2026-04-29T12:11:35.748Z</time></trkpt><trkpt lat="40.09481453404446" lon="9.397024394212815"><ele>1075.0</ele><time>2026-04-29T12:11:37.748Z</time></trkpt><trkpt lat="40.0947859800041" lon="9.397138189606261"><ele>1073.0</ele><time>2026-04-29T12:11:39.748Z</time></trkpt><trkpt lat="40.09475139903628" lon="9.397233742101415"><ele>1069.6666666666667</ele><time>2026-04-29T12:11:41.748Z</time></trkpt><trkpt lat="40.09470326416825" lon="9.39731522717693"><ele>1066.3333333333335</ele><time>2026-04-29T12:11:43.748Z</time></trkpt><trkpt lat="40.09467548775889" lon="9.397414168531508"><ele>1063.0</ele><time>2026-04-29T12:11:46.748Z</time></trkpt><trkpt lat="40.09467629031953" lon="9.397514894880526"><ele>1059.6666666666667</ele><time>2026-04-29T12:11:48.748Z</time></trkpt><trkpt lat="40.094629996033284" lon="9.397621347608249"><ele>1056.3333333333333</ele><time>2026-04-29T12:11:50.748Z</time></trkpt><trkpt lat="40.09461898349963" lon="9.397724745263597"><ele>1053.0</ele><time>2026-04-29T12:11:52.748Z</time></trkpt><trkpt lat="40.094619326472454" lon="9.397834970391747"><ele>1053.0</ele><time>2026-04-29T12:11:54.748Z</time></trkpt><trkpt lat="40.09465754660794" lon="9.397940079543114"><ele>1053.0</ele><time>2026-04-29T12:11:56.748Z</time></trkpt><trkpt lat="40.09468386359353" lon="9.398063181403527"><ele>1053.0</ele><time>2026-04-29T12:11:58.748Z</time></trkpt><trkpt lat="40.09472758217314" lon="9.398150187966765"><ele>1053.0</ele><time>2026-04-29T12:12:00.748Z</time></trkpt><trkpt lat="40.09477803868625" lon="9.398209073687779"><ele>1053.0</ele><time>2026-04-29T12:12:03.748Z</time></trkpt><trkpt lat="40.09484961379058" lon="9.398202963356441"><ele>1053.0</ele><time>2026-04-29T12:12:07.748Z</time></trkpt><trkpt lat="40.09492732067507" lon="9.398212331601814"><ele>1052.8571428571427</ele><time>2026-04-29T12:12:11.748Z</time></trkpt><trkpt lat="40.09491878542039" lon="9.39830351563613"><ele>1052.7142857142858</ele><time>2026-04-29T12:12:16.748Z</time></trkpt><trkpt lat="40.09491209335229" lon="9.398390101546406"><ele>1052.5714285714284</ele><time>2026-04-29T12:12:20.748Z</time></trkpt><trkpt lat="40.0949239183061" lon="9.398474396805437"><ele>1052.4285714285713</ele><time>2026-04-29T12:12:25.748Z</time></trkpt><trkpt lat="40.09490529423106" lon="9.39860283773217"><ele>1052.2857142857142</ele><time>2026-04-29T12:12:41.747Z</time></trkpt><trkpt lat="40.09490993201298" lon="9.398686959788822"><ele>1052.142857142857</ele><time>2026-04-29T12:12:47.747Z</time></trkpt><trkpt lat="40.094908896258865" lon="9.398790847451071"><ele>1052.0</ele><time>2026-04-29T12:12:59.747Z</time></trkpt><trkpt lat="40.09489623305026" lon="9.3988811581389"><ele>1047.5</ele><time>2026-04-29T12:13:07.747Z</time></trkpt><trkpt lat="40.094882174875835" lon="9.398965752585148"><ele>1043.0</ele><time>2026-04-29T12:13:13.746Z</time></trkpt><trkpt lat="40.09487260680161" lon="9.39906127956012"><ele>1038.5</ele><time>2026-04-29T12:13:19.746Z</time></trkpt><trkpt lat="40.094862672368805" lon="9.399166211275286"><ele>1034.0</ele><time>2026-04-29T12:13:23.746Z</time></trkpt><trkpt lat="40.09484565997344" lon="9.39925744492383"><ele>1029.5</ele><time>2026-04-29T12:13:26.746Z</time></trkpt><trkpt lat="40.09482284280295" lon="9.39937761349382"><ele>1025.0</ele><time>2026-04-29T12:18:17.001Z</time></trkpt><trkpt lat="40.094805040386795" lon="9.399470621497345"><ele>1025.0</ele><time>2026-04-29T12:18:19.001Z</time></trkpt><trkpt lat="40.09478407473162" lon="9.3995767979984"><ele>1025.0</ele><time>2026-04-29T12:18:21.001Z</time></trkpt><trkpt lat="40.09477803574277" lon="9.399682999167531"><ele>1025.0</ele><time>2026-04-29T12:18:23.001Z</time></trkpt><trkpt lat="40.09479247087201" lon="9.399769858127893"><ele>1025.0</ele><time>2026-04-29T12:18:25.002Z</time></trkpt><trkpt lat="40.09480701931886" lon="9.399880652451358"><ele>1025.0</ele><time>2026-04-29T12:18:27.002Z</time></trkpt><trkpt lat="40.094802867211605" lon="9.399988651197448"><ele>1025.0</ele><time>2026-04-29T12:18:29.002Z</time></trkpt><trkpt lat="40.09479889979146" lon="9.400092956467676"><ele>1023.8333333333334</ele><time>2026-04-29T12:18:31.002Z</time></trkpt><trkpt lat="40.094771341476005" lon="9.400169378073796"><ele>1022.6666666666667</ele><time>2026-04-29T12:18:33.002Z</time></trkpt><trkpt lat="40.09473378051097" lon="9.400265641458343"><ele>1021.5</ele><time>2026-04-29T12:18:36.002Z</time></trkpt><trkpt lat="40.09470833181565" lon="9.400362408361216"><ele>1020.3333333333333</ele><time>2026-04-29T12:18:39.002Z</time></trkpt><trkpt lat="40.09465752061939" lon="9.400456739987508"><ele>1019.1666666666666</ele><time>2026-04-29T12:18:42.002Z</time></trkpt><trkpt lat="40.09459741339001" lon="9.400536941129984"><ele>1018.0</ele><time>2026-04-29T12:18:44.002Z</time></trkpt><trkpt lat="40.09453349864218" lon="9.400607191672783"><ele>1017.7142857142856</ele><time>2026-04-29T12:18:46.002Z</time></trkpt><trkpt lat="40.09446856226352" lon="9.400681851550607"><ele>1017.4285714285713</ele><time>2026-04-29T12:18:49.002Z</time></trkpt><trkpt lat="40.09442890187395" lon="9.400755488866293"><ele>1017.1428571428571</ele><time>2026-04-29T12:18:51.002Z</time></trkpt><trkpt lat="40.09438506174547" lon="9.40082798447329"><ele>1016.8571428571428</ele><time>2026-04-29T12:18:53.002Z</time></trkpt><trkpt lat="40.094321674873036" lon="9.400855927818723"><ele>1016.5714285714284</ele><time>2026-04-29T12:18:55.002Z</time></trkpt><trkpt lat="40.094249676713474" lon="9.400840012965231"><ele>1016.2857142857143</ele><time>2026-04-29T12:18:57.002Z</time></trkpt><trkpt lat="40.094181046929435" lon="9.400800775826335"><ele>1016.0</ele><time>2026-04-29T12:18:59.003Z</time></trkpt><trkpt lat="40.094090836139756" lon="9.400796813079182"><ele>1016.6666666666667</ele><time>2026-04-29T12:19:02.003Z</time></trkpt><trkpt lat="40.09402635289166" lon="9.400810221335606"><ele>1017.3333333333334</ele><time>2026-04-29T12:19:05.003Z</time></trkpt><trkpt lat="40.0939486709469" lon="9.400777418015341"><ele>1018.0</ele><time>2026-04-29T12:19:08.003Z</time></trkpt><trkpt lat="40.09388658333753" lon="9.400745705800405"><ele>1018.6666666666667</ele><time>2026-04-29T12:19:10.003Z</time></trkpt><trkpt lat="40.09381261846167" lon="9.400712521167558"><ele>1019.3333333333334</ele><time>2026-04-29T12:19:12.003Z</time></trkpt><trkpt lat="40.09374419579507" lon="9.400796727192128"><ele>1020.0</ele><time>2026-04-29T12:19:15.003Z</time></trkpt><trkpt lat="40.09371419082921" lon="9.400917275609059"><ele>1020.0</ele><time>2026-04-29T12:19:17.003Z</time></trkpt><trkpt lat="40.09366374869167" lon="9.401021077570647"><ele>1020.0</ele><time>2026-04-29T12:19:19.003Z</time></trkpt><trkpt lat="40.093612719276116" lon="9.40109365179545"><ele>1020.0</ele><time>2026-04-29T12:19:21.003Z</time></trkpt><trkpt lat="40.0935962091041" lon="9.401177177593222"><ele>1020.0</ele><time>2026-04-29T12:20:40.001Z</time></trkpt><trkpt lat="40.09353814379177" lon="9.401289161040003"><ele>1020.0</ele><time>2026-04-29T12:21:28.001Z</time></trkpt><trkpt lat="40.09346578954741" lon="9.4013606528654"><ele>1020.0</ele><time>2026-04-29T12:21:30Z</time></trkpt><trkpt lat="40.093367646730194" lon="9.401454149610265"><ele>1019.4</ele><time>2026-04-29T12:21:32Z</time></trkpt><trkpt lat="40.093284518897306" lon="9.401557565886911"><ele>1018.8</ele><time>2026-04-29T12:21:34Z</time></trkpt><trkpt lat="40.09321490850152" lon="9.401640521394391"><ele>1018.2</ele><time>2026-04-29T12:21:36Z</time></trkpt><trkpt lat="40.093133346591" lon="9.401725383602678"><ele>1017.6</ele><time>2026-04-29T12:21:38Z</time></trkpt><trkpt lat="40.09304740624835" lon="9.401818485054086"><ele>1017.0</ele><time>2026-04-29T12:21:40Z</time></trkpt><trkpt lat="40.092963291603134" lon="9.401900928343451"><ele>1018.25</ele><time>2026-04-29T12:21:42Z</time></trkpt><trkpt lat="40.09285554344313" lon="9.401985485228213"><ele>1019.5</ele><time>2026-04-29T12:21:44Z</time></trkpt><trkpt lat="40.09275460975437" lon="9.402049927336993"><ele>1020.75</ele><time>2026-04-29T12:21:46Z</time></trkpt><trkpt lat="40.092659076497455" lon="9.402111763311098"><ele>1022.0</ele><time>2026-04-29T12:21:48Z</time></trkpt><trkpt lat="40.09257099081377" lon="9.402207233663248"><ele>1022.0000000000001</ele><time>2026-04-29T12:21:50Z</time></trkpt><trkpt lat="40.092500674048914" lon="9.402321145115625"><ele>1022.0</ele><time>2026-04-29T12:21:52Z</time></trkpt><trkpt lat="40.09245909944982" lon="9.402384889683264"><ele>1022.0</ele><time>2026-04-29T12:21:53Z</time></trkpt><trkpt lat="40.092381552278134" lon="9.402494032418973"><ele>1022.0</ele><time>2026-04-29T12:21:55Z</time></trkpt><trkpt lat="40.09233606398429" lon="9.402556010145217"><ele>1022.0000000000001</ele><time>2026-04-29T12:21:56Z</time></trkpt><trkpt lat="40.09228791868685" lon="9.402618289130944"><ele>1022.0</ele><time>2026-04-29T12:21:57Z</time></trkpt><trkpt lat="40.09224196618903" lon="9.402684588641383"><ele>1021.7142857142858</ele><time>2026-04-29T12:21:58Z</time></trkpt><trkpt lat="40.092199597602985" lon="9.402751251758222"><ele>1021.4285714285714</ele><time>2026-04-29T12:21:59Z</time></trkpt><trkpt lat="40.09215159063931" lon="9.402814143512893"><ele>1021.1428571428571</ele><time>2026-04-29T12:22:00Z</time></trkpt><trkpt lat="40.09209505763568" lon="9.402884423828839"><ele>1020.8571428571429</ele><time>2026-04-29T12:22:01Z</time></trkpt><trkpt lat="40.0920400110992" lon="9.402941258341777"><ele>1020.5714285714287</ele><time>2026-04-29T12:22:02Z</time></trkpt><trkpt lat="40.0919887668344" lon="9.403006098012442"><ele>1020.2857142857143</ele><time>2026-04-29T12:22:03Z</time></trkpt><trkpt lat="40.09195042947091" lon="9.403073633478478"><ele>1020.0</ele><time>2026-04-29T12:22:04Z</time></trkpt><trkpt lat="40.09193980815027" lon="9.40322201336218"><ele>1020.0</ele><time>2026-04-29T12:22:06Z</time></trkpt><trkpt lat="40.09194013145964" lon="9.40331130964687"><ele>1020.0</ele><time>2026-04-29T12:22:07Z</time></trkpt><trkpt lat="40.09191321009711" lon="9.403443397349868"><ele>1020.0</ele><time>2026-04-29T12:22:09Z</time></trkpt><trkpt lat="40.091834907853936" lon="9.403546625769218"><ele>1020.0</ele><time>2026-04-29T12:22:11Z</time></trkpt><trkpt lat="40.091758715264376" lon="9.403571506460429"><ele>1020.0</ele><time>2026-04-29T12:22:13Z</time></trkpt><trkpt lat="40.0916356501901" lon="9.403614596595213"><ele>1021.1666666666666</ele><time>2026-04-29T12:22:15Z</time></trkpt><trkpt lat="40.09156546624496" lon="9.403653711817501"><ele>1022.3333333333333</ele><time>2026-04-29T12:22:16Z</time></trkpt><trkpt lat="40.09149513695319" lon="9.403677224517493"><ele>1023.5</ele><time>2026-04-29T12:22:17Z</time></trkpt><trkpt lat="40.091421834863354" lon="9.403699813089549"><ele>1024.6666666666665</ele><time>2026-04-29T12:22:18Z</time></trkpt><trkpt lat="40.09134578416537" lon="9.40372150428669"><ele>1025.8333333333333</ele><time>2026-04-29T12:22:19Z</time></trkpt><trkpt lat="40.09127747727863" lon="9.40375164021704"><ele>1027.0</ele><time>2026-04-29T12:22:20Z</time></trkpt><trkpt lat="40.09120523345133" lon="9.40378101688498"><ele>1027.0</ele><time>2026-04-29T12:22:21Z</time></trkpt><trkpt lat="40.09113003898508" lon="9.403802013875621"><ele>1027.0</ele><time>2026-04-29T12:22:22Z</time></trkpt><trkpt lat="40.09105090053257" lon="9.40383212096561"><ele>1027.0</ele><time>2026-04-29T12:22:23Z</time></trkpt><trkpt lat="40.09098255989044" lon="9.403871256193938"><ele>1027.0</ele><time>2026-04-29T12:22:24Z</time></trkpt><trkpt lat="40.09090989921443" lon="9.403923549060943"><ele>1027.0</ele><time>2026-04-29T12:22:25Z</time></trkpt><trkpt lat="40.09082866605806" lon="9.403970174148181"><ele>1027.0</ele><time>2026-04-29T12:22:26Z</time></trkpt><trkpt lat="40.09075372655271" lon="9.40401730999072"><ele>1026.0</ele><time>2026-04-29T12:22:27Z</time></trkpt><trkpt lat="40.09068169063372" lon="9.404069012777047"><ele>1025.0</ele><time>2026-04-29T12:22:28Z</time></trkpt><trkpt lat="40.0906219484192" lon="9.404111924438974"><ele>1024.0</ele><time>2026-04-29T12:22:29Z</time></trkpt><trkpt lat="40.09055464784134" lon="9.404196635766667"><ele>1023.0</ele><time>2026-04-29T12:22:31Z</time></trkpt><trkpt lat="40.09049807409785" lon="9.404260839835693"><ele>1021.9999999999999</ele><time>2026-04-29T12:22:33Z</time></trkpt><trkpt lat="40.09043037466584" lon="9.404313354497496"><ele>1021.0</ele><time>2026-04-29T12:22:35Z</time></trkpt><trkpt lat="40.09033308649719" lon="9.404326101627916"><ele>1020.9999999999999</ele><time>2026-04-29T12:22:37.001Z</time></trkpt><trkpt lat="40.090267481312914" lon="9.40436034522421"><ele>1021.0</ele><time>2026-04-29T12:22:39.001Z</time></trkpt><trkpt lat="40.090213977368435" lon="9.404425622394335"><ele>1021.0</ele><time>2026-04-29T12:22:41.001Z</time></trkpt><trkpt lat="40.09015641214333" lon="9.404509937045606"><ele>1021.0</ele><time>2026-04-29T12:22:43.001Z</time></trkpt><trkpt lat="40.090084732640165" lon="9.404547498461977"><ele>1020.9999999999999</ele><time>2026-04-29T12:22:45.001Z</time></trkpt><trkpt lat="40.08998415164228" lon="9.404552235844493"><ele>1021.0</ele><time>2026-04-29T12:22:47.001Z</time></trkpt><trkpt lat="40.08987078569528" lon="9.40454037903962"><ele>1021.3333333333333</ele><time>2026-04-29T12:22:49.001Z</time></trkpt><trkpt lat="40.08974608364408" lon="9.404531542603266"><ele>1021.6666666666666</ele><time>2026-04-29T12:22:51.001Z</time></trkpt><trkpt lat="40.08967512772021" lon="9.404527888702406"><ele>1022.0</ele><time>2026-04-29T12:22:52.001Z</time></trkpt><trkpt lat="40.089607519344035" lon="9.404528692338939"><ele>1022.3333333333333</ele><time>2026-04-29T12:22:53.001Z</time></trkpt><trkpt lat="40.089532123970926" lon="9.404522611676194"><ele>1022.6666666666666</ele><time>2026-04-29T12:22:54.001Z</time></trkpt><trkpt lat="40.08946152948001" lon="9.404514584404536"><ele>1023.0</ele><time>2026-04-29T12:22:55.001Z</time></trkpt><trkpt lat="40.089392940167414" lon="9.404505597732145"><ele>1023.0</ele><time>2026-04-29T12:22:56.001Z</time></trkpt><trkpt lat="40.08932676922656" lon="9.40450143727066"><ele>1023.0</ele><time>2026-04-29T12:22:57.001Z</time></trkpt><trkpt lat="40.08925594448029" lon="9.404496959540866"><ele>1023.0</ele><time>2026-04-29T12:22:58.001Z</time></trkpt><trkpt lat="40.08918375662418" lon="9.404482504185738"><ele>1023.0</ele><time>2026-04-29T12:22:59.001Z</time></trkpt><trkpt lat="40.0891149899333" lon="9.404480174904288"><ele>1023.0</ele><time>2026-04-29T12:23:00.001Z</time></trkpt><trkpt lat="40.08904237010952" lon="9.404471503034214"><ele>1023.0</ele><time>2026-04-29T12:23:01.001Z</time></trkpt><trkpt lat="40.08892506829925" lon="9.404475865293263"><ele>1024.0</ele><time>2026-04-29T12:23:03.001Z</time></trkpt><trkpt lat="40.08879809123594" lon="9.404478355245256"><ele>1025.0</ele><time>2026-04-29T12:23:05.001Z</time></trkpt><trkpt lat="40.08873433241423" lon="9.404474935895152"><ele>1026.0</ele><time>2026-04-29T12:23:06.001Z</time></trkpt><trkpt lat="40.088643770454766" lon="9.40447327794104"><ele>1027.0</ele><time>2026-04-29T12:23:07.001Z</time></trkpt><trkpt lat="40.08856773688894" lon="9.404486847039243"><ele>1028.0</ele><time>2026-04-29T12:23:08.001Z</time></trkpt><trkpt lat="40.08849507032257" lon="9.404505969827126"><ele>1029.0</ele><time>2026-04-29T12:23:09.001Z</time></trkpt><trkpt lat="40.08842233437296" lon="9.404529625723056"><ele>1029.0</ele><time>2026-04-29T12:23:10.001Z</time></trkpt><trkpt lat="40.08834837703691" lon="9.404551721863259"><ele>1029.0</ele><time>2026-04-29T12:23:11.001Z</time></trkpt><trkpt lat="40.08827534716656" lon="9.404564508344091"><ele>1029.0</ele><time>2026-04-29T12:23:12.001Z</time></trkpt><trkpt lat="40.088203433902386" lon="9.404568369808626"><ele>1029.0</ele><time>2026-04-29T12:23:13.001Z</time></trkpt><trkpt lat="40.08812946122639" lon="9.404574220085344"><ele>1029.0</ele><time>2026-04-29T12:23:14.001Z</time></trkpt><trkpt lat="40.08805838519221" lon="9.40458028094016"><ele>1029.0</ele><time>2026-04-29T12:23:15.001Z</time></trkpt><trkpt lat="40.08799157497491" lon="9.404590780823312"><ele>1029.0</ele><time>2026-04-29T12:23:16.001Z</time></trkpt><trkpt lat="40.087912146354704" lon="9.404607601613808"><ele>1030.1666666666667</ele><time>2026-04-29T12:23:17.001Z</time></trkpt><trkpt lat="40.08783275660167" lon="9.40462550400128"><ele>1031.3333333333333</ele><time>2026-04-29T12:23:18.001Z</time></trkpt><trkpt lat="40.08776026658407" lon="9.404640058384826"><ele>1032.5</ele><time>2026-04-29T12:23:19.001Z</time></trkpt><trkpt lat="40.08768244566573" lon="9.404655717123433"><ele>1033.6666666666665</ele><time>2026-04-29T12:23:20.001Z</time></trkpt><trkpt lat="40.08761307784341" lon="9.404669087164601"><ele>1034.8333333333333</ele><time>2026-04-29T12:23:21.001Z</time></trkpt><trkpt lat="40.08753546961448" lon="9.404681003645187"><ele>1036.0</ele><time>2026-04-29T12:23:22.001Z</time></trkpt><trkpt lat="40.08746278388222" lon="9.404689495752413"><ele>1036.6666666666665</ele><time>2026-04-29T12:23:23.001Z</time></trkpt><trkpt lat="40.08739126814983" lon="9.404683843007556"><ele>1037.3333333333333</ele><time>2026-04-29T12:23:24.001Z</time></trkpt><trkpt lat="40.087263702360225" lon="9.404648946189212"><ele>1038.0</ele><time>2026-04-29T12:23:26.001Z</time></trkpt><trkpt lat="40.087187195188115" lon="9.404642631107315"><ele>1038.6666666666667</ele><time>2026-04-29T12:23:27.001Z</time></trkpt><trkpt lat="40.08710586010532" lon="9.404647318697231"><ele>1039.3333333333335</ele><time>2026-04-29T12:23:28.001Z</time></trkpt><trkpt lat="40.08702799954403" lon="9.40465020721988"><ele>1040.0</ele><time>2026-04-29T12:23:29.001Z</time></trkpt><trkpt lat="40.08694949848028" lon="9.404657548784154"><ele>1041.8333333333335</ele><time>2026-04-29T12:23:30.001Z</time></trkpt><trkpt lat="40.086866493236265" lon="9.404669233194587"><ele>1043.6666666666667</ele><time>2026-04-29T12:23:31.001Z</time></trkpt><trkpt lat="40.086785755003405" lon="9.404676016902467"><ele>1045.5</ele><time>2026-04-29T12:23:32.001Z</time></trkpt><trkpt lat="40.08669824319791" lon="9.404692996838435"><ele>1047.3333333333333</ele><time>2026-04-29T12:23:33.001Z</time></trkpt><trkpt lat="40.08661225147233" lon="9.404705435271577"><ele>1049.1666666666665</ele><time>2026-04-29T12:23:34.001Z</time></trkpt><trkpt lat="40.08652558940005" lon="9.404725951520007"><ele>1051.0</ele><time>2026-04-29T12:23:35.001Z</time></trkpt><trkpt lat="40.08644056916412" lon="9.404750952941185"><ele>1051.5</ele><time>2026-04-29T12:23:36Z</time></trkpt><trkpt lat="40.08635395059941" lon="9.404771781881513"><ele>1052.0</ele><time>2026-04-29T12:23:37Z</time></trkpt><trkpt lat="40.08628395481622" lon="9.404783787439486"><ele>1052.5</ele><time>2026-04-29T12:23:38Z</time></trkpt><trkpt lat="40.08620814904087" lon="9.404820427940068"><ele>1053.0</ele><time>2026-04-29T12:23:39Z</time></trkpt><trkpt lat="40.08613938078636" lon="9.404849409602079"><ele>1053.5</ele><time>2026-04-29T12:23:40Z</time></trkpt><trkpt lat="40.08601482309085" lon="9.404857139956052"><ele>1054.0</ele><time>2026-04-29T12:23:42Z</time></trkpt><trkpt lat="40.08594455450669" lon="9.404850137006287"><ele>1054.0</ele><time>2026-04-29T12:23:43Z</time></trkpt><trkpt lat="40.085872339725256" lon="9.404837688834592"><ele>1054.0</ele><time>2026-04-29T12:23:44Z</time></trkpt><trkpt lat="40.08579477670232" lon="9.40482688223151"><ele>1054.0</ele><time>2026-04-29T12:23:45Z</time></trkpt><trkpt lat="40.08571093776788" lon="9.404820973149343"><ele>1054.0</ele><time>2026-04-29T12:23:46Z</time></trkpt><trkpt lat="40.08562208044916" lon="9.404815826347301"><ele>1054.0</ele><time>2026-04-29T12:23:47Z</time></trkpt><trkpt lat="40.08553792095212" lon="9.404805422464136"><ele>1054.0</ele><time>2026-04-29T12:23:48Z</time></trkpt><trkpt lat="40.08547376088783" lon="9.404785646462782"><ele>1055.3333333333333</ele><time>2026-04-29T12:23:49Z</time></trkpt><trkpt lat="40.08540174363703" lon="9.404757044642674"><ele>1056.6666666666665</ele><time>2026-04-29T12:23:50Z</time></trkpt><trkpt lat="40.08532817240141" lon="9.404736633197393"><ele>1058.0</ele><time>2026-04-29T12:23:51Z</time></trkpt><trkpt lat="40.08525342758971" lon="9.404723200977914"><ele>1059.3333333333333</ele><time>2026-04-29T12:23:52Z</time></trkpt><trkpt lat="40.08517686704515" lon="9.40471161686039"><ele>1060.6666666666667</ele><time>2026-04-29T12:23:53Z</time></trkpt><trkpt lat="40.08509456888281" lon="9.404701641574132"><ele>1062.0</ele><time>2026-04-29T12:23:54Z</time></trkpt><trkpt lat="40.08501840210497" lon="9.4046930217441"><ele>1062.0</ele><time>2026-04-29T12:23:55Z</time></trkpt><trkpt lat="40.08495223172418" lon="9.404684277930341"><ele>1062.0</ele><time>2026-04-29T12:23:56Z</time></trkpt><trkpt lat="40.08488185781426" lon="9.404671521932842"><ele>1062.0</ele><time>2026-04-29T12:23:57Z</time></trkpt><trkpt lat="40.08481059467617" lon="9.404653939786892"><ele>1062.0</ele><time>2026-04-29T12:23:58Z</time></trkpt><trkpt lat="40.08473782391466" lon="9.4046292109937"><ele>1062.0</ele><time>2026-04-29T12:23:59Z</time></trkpt><trkpt lat="40.08466740624509" lon="9.40459935871241"><ele>1062.0</ele><time>2026-04-29T12:24:00Z</time></trkpt><trkpt lat="40.08458758081722" lon="9.404564009252736"><ele>1062.0</ele><time>2026-04-29T12:24:01Z</time></trkpt><trkpt lat="40.084515602539945" lon="9.404535664174588"><ele>1061.1666666666667</ele><time>2026-04-29T12:24:02Z</time></trkpt><trkpt lat="40.0844394814847" lon="9.404511443914828"><ele>1060.3333333333333</ele><time>2026-04-29T12:24:03Z</time></trkpt><trkpt lat="40.08436579952457" lon="9.404499673785587"><ele>1059.5</ele><time>2026-04-29T12:24:04Z</time></trkpt><trkpt lat="40.08428041942855" lon="9.40449907340032"><ele>1058.6666666666665</ele><time>2026-04-29T12:24:05Z</time></trkpt><trkpt lat="40.084187474268575" lon="9.404505235437055"><ele>1057.8333333333333</ele><time>2026-04-29T12:24:06Z</time></trkpt><trkpt lat="40.084096933201856" lon="9.40450878917379"><ele>1057.0</ele><time>2026-04-29T12:24:07Z</time></trkpt><trkpt lat="40.08401470814936" lon="9.40451439333625"><ele>1057.0</ele><time>2026-04-29T12:24:08Z</time></trkpt><trkpt lat="40.083926746126984" lon="9.404524661791825"><ele>1057.0</ele><time>2026-04-29T12:24:09Z</time></trkpt><trkpt lat="40.08384970347917" lon="9.404544666266647"><ele>1057.0</ele><time>2026-04-29T12:24:10Z</time></trkpt><trkpt lat="40.08375098612186" lon="9.404547300002495"><ele>1057.0</ele><time>2026-04-29T12:24:12Z</time></trkpt><trkpt lat="40.08371029119378" lon="9.404462782698161"><ele>1057.0</ele><time>2026-04-29T12:24:15Z</time></trkpt><trkpt lat="40.08372224605883" lon="9.404361649764144"><ele>1057.0</ele><time>2026-04-29T12:24:17Z</time></trkpt><trkpt lat="40.08372860344316" lon="9.404242140503497"><ele>1057.0</ele><time>2026-04-29T12:24:19Z</time></trkpt><trkpt lat="40.08365367434729" lon="9.404156334857655"><ele>1057.0</ele><time>2026-04-29T12:24:22Z</time></trkpt><trkpt lat="40.083532024254545" lon="9.404126467890508"><ele>1057.0</ele><time>2026-04-29T12:24:24Z</time></trkpt><trkpt lat="40.0834052338585" lon="9.404097037949079"><ele>1057.0</ele><time>2026-04-29T12:24:26Z</time></trkpt><trkpt lat="40.0833377195251" lon="9.404084436499467"><ele>1057.0</ele><time>2026-04-29T12:24:27Z</time></trkpt><trkpt lat="40.08326946354243" lon="9.404075355296785"><ele>1059.1666666666665</ele><time>2026-04-29T12:24:28Z</time></trkpt><trkpt lat="40.083200097639654" lon="9.404061395764733"><ele>1061.3333333333333</ele><time>2026-04-29T12:24:29Z</time></trkpt><trkpt lat="40.08312203286923" lon="9.404050086298662"><ele>1063.5</ele><time>2026-04-29T12:24:30Z</time></trkpt><trkpt lat="40.08304770108985" lon="9.404046215613088"><ele>1065.6666666666667</ele><time>2026-04-29T12:24:31Z</time></trkpt><trkpt lat="40.082973288206844" lon="9.40404721819879"><ele>1067.8333333333335</ele><time>2026-04-29T12:24:32Z</time></trkpt><trkpt lat="40.08289139142053" lon="9.404054185664547"><ele>1070.0</ele><time>2026-04-29T12:24:33Z</time></trkpt><trkpt lat="40.08280533823128" lon="9.404058448758013"><ele>1070.0</ele><time>2026-04-29T12:24:34Z</time></trkpt><trkpt lat="40.082717838254055" lon="9.404056598665848"><ele>1070.0</ele><time>2026-04-29T12:24:35Z</time></trkpt><trkpt lat="40.08263414912274" lon="9.404051058852263"><ele>1070.0</ele><time>2026-04-29T12:24:36Z</time></trkpt><trkpt lat="40.08255602862752" lon="9.404036123813617"><ele>1070.0</ele><time>2026-04-29T12:24:37Z</time></trkpt><trkpt lat="40.08248379938355" lon="9.404015778889203"><ele>1070.0</ele><time>2026-04-29T12:24:38Z</time></trkpt><trkpt lat="40.08241812364231" lon="9.403983808596484"><ele>1070.0</ele><time>2026-04-29T12:24:39Z</time></trkpt><trkpt lat="40.08235394416819" lon="9.403958665105007"><ele>1070.0</ele><time>2026-04-29T12:24:40Z</time></trkpt><trkpt lat="40.08223810922586" lon="9.403920171225959"><ele>1070.0</ele><time>2026-04-29T12:24:42Z</time></trkpt><trkpt lat="40.08217790918781" lon="9.403894077831223"><ele>1070.0</ele><time>2026-04-29T12:24:43Z</time></trkpt><trkpt lat="40.08205730350375" lon="9.40384008749974"><ele>1070.0</ele><time>2026-04-29T12:24:45.001Z</time></trkpt><trkpt lat="40.08197906116289" lon="9.403813923308704"><ele>1070.0</ele><time>2026-04-29T12:24:46.001Z</time></trkpt><trkpt lat="40.08189266231473" lon="9.403783218824225"><ele>1070.0</ele><time>2026-04-29T12:24:47.001Z</time></trkpt><trkpt lat="40.081804099388435" lon="9.403747599353583"><ele>1070.0</ele><time>2026-04-29T12:24:48.001Z</time></trkpt><trkpt lat="40.08171222848702" lon="9.403706418587033"><ele>1070.0</ele><time>2026-04-29T12:24:49.001Z</time></trkpt><trkpt lat="40.08162207818635" lon="9.403664673390214"><ele>1070.0</ele><time>2026-04-29T12:24:50.001Z</time></trkpt><trkpt lat="40.081533044857956" lon="9.403629295981235"><ele>1070.0</ele><time>2026-04-29T12:24:51.001Z</time></trkpt><trkpt lat="40.08145086094353" lon="9.40359277448102"><ele>1071.1666666666667</ele><time>2026-04-29T12:24:52.001Z</time></trkpt><trkpt lat="40.081380043568245" lon="9.403557094064366"><ele>1072.3333333333335</ele><time>2026-04-29T12:24:53.001Z</time></trkpt><trkpt lat="40.08130306769736" lon="9.403516965691448"><ele>1073.5</ele><time>2026-04-29T12:24:54.001Z</time></trkpt><trkpt lat="40.081172665503715" lon="9.403483762299066"><ele>1074.6666666666667</ele><time>2026-04-29T12:24:56.001Z</time></trkpt><trkpt lat="40.08110062501037" lon="9.40349822664505"><ele>1075.8333333333333</ele><time>2026-04-29T12:24:57.001Z</time></trkpt><trkpt lat="40.0810325791129" lon="9.403531833085468"><ele>1077.0</ele><time>2026-04-29T12:24:58.001Z</time></trkpt><trkpt lat="40.08097154975258" lon="9.403557519495251"><ele>1077.0</ele><time>2026-04-29T12:24:59.001Z</time></trkpt><trkpt lat="40.08090788874333" lon="9.403507987957976"><ele>1077.0</ele><time>2026-04-29T12:25:01.001Z</time></trkpt><trkpt lat="40.08089032428643" lon="9.403420809709356"><ele>1077.0</ele><time>2026-04-29T12:25:03.001Z</time></trkpt><trkpt lat="40.08085007250956" lon="9.403311221523694"><ele>1077.0</ele><time>2026-04-29T12:25:05.001Z</time></trkpt><trkpt lat="40.080735233344285" lon="9.403254662673342"><ele>1077.0</ele><time>2026-04-29T12:25:07.001Z</time></trkpt><trkpt lat="40.08066362397565" lon="9.403257878029052"><ele>1077.0</ele><time>2026-04-29T12:25:08.001Z</time></trkpt><trkpt lat="40.080588312920895" lon="9.403269432266278"><ele>1078.8333333333333</ele><time>2026-04-29T12:25:09.001Z</time></trkpt><trkpt lat="40.080511415756526" lon="9.403278768541153"><ele>1080.6666666666667</ele><time>2026-04-29T12:25:10.001Z</time></trkpt><trkpt lat="40.08043024830025" lon="9.403284122504601"><ele>1082.5</ele><time>2026-04-29T12:25:11.001Z</time></trkpt><trkpt lat="40.08035682306726" lon="9.403287132829503"><ele>1084.3333333333335</ele><time>2026-04-29T12:25:12.001Z</time></trkpt><trkpt lat="40.08029230727188" lon="9.403293895588002"><ele>1086.1666666666667</ele><time>2026-04-29T12:25:13.001Z</time></trkpt><trkpt lat="40.080219809574025" lon="9.403292328721912"><ele>1088.0</ele><time>2026-04-29T12:25:14.001Z</time></trkpt><trkpt lat="40.080097584024784" lon="9.403251985847948"><ele>1088.0</ele><time>2026-04-29T12:25:16.001Z</time></trkpt><trkpt lat="40.08003291689205" lon="9.40323001212698"><ele>1088.0</ele><time>2026-04-29T12:25:17.001Z</time></trkpt><trkpt lat="40.079908582447686" lon="9.40319055167862"><ele>1088.0</ele><time>2026-04-29T12:25:19.001Z</time></trkpt><trkpt lat="40.07983864741031" lon="9.403240368875744"><ele>1088.0</ele><time>2026-04-29T12:25:21.001Z</time></trkpt><trkpt lat="40.07985288749943" lon="9.403321478212847"><ele>1088.0</ele><time>2026-04-29T12:25:23.001Z</time></trkpt><trkpt lat="40.07993173576159" lon="9.40339138807998"><ele>1088.0</ele><time>2026-04-29T12:25:25.001Z</time></trkpt><trkpt lat="40.07998356435305" lon="9.4034402786513"><ele>1088.0</ele><time>2026-04-29T12:25:26.001Z</time></trkpt><trkpt lat="40.080033873413804" lon="9.403506228250153"><ele>1088.0</ele><time>2026-04-29T12:25:27.001Z</time></trkpt><trkpt lat="40.08009141547964" lon="9.403576444174318"><ele>1088.0</ele><time>2026-04-29T12:25:28.001Z</time></trkpt><trkpt lat="40.080138729005505" lon="9.403658795004278"><ele>1088.0</ele><time>2026-04-29T12:25:29.001Z</time></trkpt><trkpt lat="40.0801835571697" lon="9.403753271849666"><ele>1088.0</ele><time>2026-04-29T12:25:30.001Z</time></trkpt><trkpt lat="40.0802298261365" lon="9.403828539935592"><ele>1088.0</ele><time>2026-04-29T12:25:31.001Z</time></trkpt><trkpt lat="40.080253298576885" lon="9.403907494236027"><ele>1090.5714285714284</ele><time>2026-04-29T12:25:32.001Z</time></trkpt><trkpt lat="40.08026945089816" lon="9.403994955825198"><ele>1093.142857142857</ele><time>2026-04-29T12:25:33.001Z</time></trkpt><trkpt lat="40.08027194597473" lon="9.404089577146744"><ele>1095.7142857142858</ele><time>2026-04-29T12:25:34.001Z</time></trkpt><trkpt lat="40.08028400734047" lon="9.404180069280658"><ele>1098.2857142857142</ele><time>2026-04-29T12:25:35.001Z</time></trkpt><trkpt lat="40.08031887054313" lon="9.404264808275322"><ele>1100.857142857143</ele><time>2026-04-29T12:25:36.001Z</time></trkpt><trkpt lat="40.08035387887466" lon="9.404345704994618"><ele>1103.4285714285713</ele><time>2026-04-29T12:25:37.001Z</time></trkpt><trkpt lat="40.08036091806034" lon="9.404439951217432"><ele>1106.0</ele><time>2026-04-29T12:25:38.001Z</time></trkpt><trkpt lat="40.08034729585065" lon="9.404540064674945"><ele>1106.0</ele><time>2026-04-29T12:25:39.001Z</time></trkpt><trkpt lat="40.080320085379874" lon="9.404625367700786"><ele>1106.0</ele><time>2026-04-29T12:25:40.001Z</time></trkpt><trkpt lat="40.08029781703881" lon="9.404717306848747"><ele>1106.0</ele><time>2026-04-29T12:25:41.001Z</time></trkpt><trkpt lat="40.080277746432444" lon="9.404800736079123"><ele>1106.0</ele><time>2026-04-29T12:25:42Z</time></trkpt><trkpt lat="40.080254772445784" lon="9.404882865991183"><ele>1106.0</ele><time>2026-04-29T12:25:43Z</time></trkpt><trkpt lat="40.08017697208209" lon="9.405015355668873"><ele>1106.0</ele><time>2026-04-29T12:25:45Z</time></trkpt><trkpt lat="40.08010335419127" lon="9.405124244256077"><ele>1108.0</ele><time>2026-04-29T12:25:47Z</time></trkpt><trkpt lat="40.0800253314531" lon="9.405108116377036"><ele>1110.0</ele><time>2026-04-29T12:25:50Z</time></trkpt><trkpt lat="40.07998973712223" lon="9.404994274315174"><ele>1112.0</ele><time>2026-04-29T12:25:52Z</time></trkpt><trkpt lat="40.07994004545528" lon="9.404895323337493"><ele>1114.0</ele><time>2026-04-29T12:25:54Z</time></trkpt><trkpt lat="40.07985188790415" lon="9.404759803407464"><ele>1116.0</ele><time>2026-04-29T12:25:56Z</time></trkpt><trkpt lat="40.0798102578211" lon="9.40469070711136"><ele>1116.8571428571427</ele><time>2026-04-29T12:25:57Z</time></trkpt><trkpt lat="40.07977366574207" lon="9.404614635127714"><ele>1117.7142857142858</ele><time>2026-04-29T12:25:58Z</time></trkpt><trkpt lat="40.07971625017861" lon="9.40456042471124"><ele>1118.5714285714284</ele><time>2026-04-29T12:25:59Z</time></trkpt><trkpt lat="40.079657740547" lon="9.404525896207597"><ele>1119.4285714285713</ele><time>2026-04-29T12:26:00Z</time></trkpt><trkpt lat="40.07958333028996" lon="9.404497406768263"><ele>1120.2857142857142</ele><time>2026-04-29T12:26:01Z</time></trkpt><trkpt lat="40.07949729364721" lon="9.404477565639787"><ele>1121.142857142857</ele><time>2026-04-29T12:26:02Z</time></trkpt><trkpt lat="40.07943093956213" lon="9.404450238819152"><ele>1122.0</ele><time>2026-04-29T12:26:03Z</time></trkpt><trkpt lat="40.07937213179876" lon="9.404410645962932"><ele>1122.0</ele><time>2026-04-29T12:26:04Z</time></trkpt><trkpt lat="40.07925934969712" lon="9.404356899921115"><ele>1122.0</ele><time>2026-04-29T12:26:06Z</time></trkpt><trkpt lat="40.07919240976624" lon="9.404328599232615"><ele>1122.0</ele><time>2026-04-29T12:26:07Z</time></trkpt><trkpt lat="40.07911971654213" lon="9.404307549112746"><ele>1122.0</ele><time>2026-04-29T12:26:08Z</time></trkpt><trkpt lat="40.079043750189335" lon="9.404301759983138"><ele>1122.0</ele><time>2026-04-29T12:26:09Z</time></trkpt><trkpt lat="40.0789563545164" lon="9.404308075218006"><ele>1122.0</ele><time>2026-04-29T12:26:10Z</time></trkpt><trkpt lat="40.078886399033614" lon="9.40433204380264"><ele>1123.2857142857142</ele><time>2026-04-29T12:26:11Z</time></trkpt><trkpt lat="40.078814018335784" lon="9.404357413855257"><ele>1124.5714285714284</ele><time>2026-04-29T12:26:12Z</time></trkpt><trkpt lat="40.078750071501496" lon="9.404381562934145"><ele>1125.857142857143</ele><time>2026-04-29T12:26:13Z</time></trkpt><trkpt lat="40.078684615121595" lon="9.404399772481256"><ele>1127.142857142857</ele><time>2026-04-29T12:26:14Z</time></trkpt><trkpt lat="40.07861370004395" lon="9.404405395088062"><ele>1128.4285714285716</ele><time>2026-04-29T12:26:15Z</time></trkpt><trkpt lat="40.078529264303754" lon="9.40440861566089"><ele>1129.7142857142858</ele><time>2026-04-29T12:26:16Z</time></trkpt><trkpt lat="40.07844394333698" lon="9.404413882391124"><ele>1131.0</ele><time>2026-04-29T12:26:17Z</time></trkpt><trkpt lat="40.078371199731556" lon="9.404404494669889"><ele>1131.0</ele><time>2026-04-29T12:26:18Z</time></trkpt><trkpt lat="40.07828826028566" lon="9.404407743299608"><ele>1131.0</ele><time>2026-04-29T12:26:19Z</time></trkpt><trkpt lat="40.07819662053434" lon="9.40442222926468"><ele>1131.0</ele><time>2026-04-29T12:26:20Z</time></trkpt><trkpt lat="40.07811302250899" lon="9.404436455055539"><ele>1131.0</ele><time>2026-04-29T12:26:21Z</time></trkpt><trkpt lat="40.07802728987861" lon="9.404450534826921"><ele>1131.0</ele><time>2026-04-29T12:26:22Z</time></trkpt><trkpt lat="40.077929876660555" lon="9.404463699267854"><ele>1131.0</ele><time>2026-04-29T12:26:23Z</time></trkpt><trkpt lat="40.07783580111243" lon="9.404480712665466"><ele>1132.0</ele><time>2026-04-29T12:26:24Z</time></trkpt><trkpt lat="40.07774201041751" lon="9.404492199637989"><ele>1133.0</ele><time>2026-04-29T12:26:25Z</time></trkpt><trkpt lat="40.07764762672976" lon="9.404508047032591"><ele>1134.0</ele><time>2026-04-29T12:26:26Z</time></trkpt><trkpt lat="40.077548923107756" lon="9.404520972033609"><ele>1135.0</ele><time>2026-04-29T12:26:27Z</time></trkpt><trkpt lat="40.07745985384237" lon="9.404531919804885"><ele>1136.0</ele><time>2026-04-29T12:26:28Z</time></trkpt><trkpt lat="40.0773796378668" lon="9.4045573667772"><ele>1137.6</ele><time>2026-04-29T12:26:29Z</time></trkpt><trkpt lat="40.07729207963117" lon="9.404594310675117"><ele>1139.1999999999998</ele><time>2026-04-29T12:26:31Z</time></trkpt><trkpt lat="40.077354200627326" lon="9.404640647849059"><ele>1140.8000000000002</ele><time>2026-04-29T12:26:36.001Z</time></trkpt><trkpt lat="40.07743794311067" lon="9.404690372448838"><ele>1142.4</ele><time>2026-04-29T12:27:33.001Z</time></trkpt><trkpt lat="40.07753290043557" lon="9.404728748219158"><ele>1144.0</ele><time>2026-04-29T12:27:35.001Z</time></trkpt><trkpt lat="40.0776504772273" lon="9.404778134306774"><ele>1146.5</ele><time>2026-04-29T12:27:37.001Z</time></trkpt><trkpt lat="40.07771853404689" lon="9.40480609529822"><ele>1149.0</ele><time>2026-04-29T12:27:38.001Z</time></trkpt><trkpt lat="40.07779460911156" lon="9.404838188147934"><ele>1151.5</ele><time>2026-04-29T12:27:39.001Z</time></trkpt><trkpt lat="40.077872133528196" lon="9.40487611485999"><ele>1154.0</ele><time>2026-04-29T12:27:40.001Z</time></trkpt><trkpt lat="40.077949435941235" lon="9.404920740331992"><ele>1156.5</ele><time>2026-04-29T12:27:41.001Z</time></trkpt><trkpt lat="40.07802339391796" lon="9.404974925580827"><ele>1159.0</ele><time>2026-04-29T12:27:42.001Z</time></trkpt><trkpt lat="40.07809555739148" lon="9.405036236787359"><ele>1159.0</ele><time>2026-04-29T12:27:43.001Z</time></trkpt><trkpt lat="40.07816539398967" lon="9.405104659196546"><ele>1159.0</ele><time>2026-04-29T12:27:44.001Z</time></trkpt><trkpt lat="40.07822999726851" lon="9.405177663138419"><ele>1159.0</ele><time>2026-04-29T12:27:45.001Z</time></trkpt><trkpt lat="40.07828038954823" lon="9.405251801846962"><ele>1159.0</ele><time>2026-04-29T12:27:46.001Z</time></trkpt><trkpt lat="40.07833053003201" lon="9.405329839583905"><ele>1159.0</ele><time>2026-04-29T12:27:47.001Z</time></trkpt><trkpt lat="40.07838567452848" lon="9.40542347672173"><ele>1159.0</ele><time>2026-04-29T12:27:48Z</time></trkpt><trkpt lat="40.07843789280654" lon="9.405525761924828"><ele>1160.6666666666665</ele><time>2026-04-29T12:27:49Z</time></trkpt><trkpt lat="40.07848397547644" lon="9.405622715209732"><ele>1162.3333333333333</ele><time>2026-04-29T12:27:50Z</time></trkpt><trkpt lat="40.07852948119548" lon="9.405720224613818"><ele>1164.0</ele><time>2026-04-29T12:27:51Z</time></trkpt><trkpt lat="40.07858031037623" lon="9.405837769820126"><ele>1165.6666666666667</ele><time>2026-04-29T12:27:53Z</time></trkpt><trkpt lat="40.0785242112592" lon="9.405889878425215"><ele>1167.3333333333335</ele><time>2026-04-29T12:27:57Z</time></trkpt><trkpt lat="40.07845674027726" lon="9.405801788469734"><ele>1169.0</ele><time>2026-04-29T12:27:59Z</time></trkpt><trkpt lat="40.0784132238665" lon="9.405738034796823"><ele>1169.0</ele><time>2026-04-29T12:28:00Z</time></trkpt><trkpt lat="40.07835812429496" lon="9.40568157954207"><ele>1169.0</ele><time>2026-04-29T12:28:01Z</time></trkpt><trkpt lat="40.0782868177715" lon="9.40563904965009"><ele>1169.0</ele><time>2026-04-29T12:28:02Z</time></trkpt><trkpt lat="40.07820788369135" lon="9.405605750330896"><ele>1169.0</ele><time>2026-04-29T12:28:03Z</time></trkpt><trkpt lat="40.07812339744468" lon="9.405572419407768"><ele>1169.0</ele><time>2026-04-29T12:28:04Z</time></trkpt><trkpt lat="40.07803701210396" lon="9.405549636864803"><ele>1169.0</ele><time>2026-04-29T12:28:05Z</time></trkpt><trkpt lat="40.07795337924579" lon="9.405530881820878"><ele>1170.8333333333335</ele><time>2026-04-29T12:28:06Z</time></trkpt><trkpt lat="40.077869796097495" lon="9.405524373663827"><ele>1172.6666666666667</ele><time>2026-04-29T12:28:07Z</time></trkpt><trkpt lat="40.077785061450676" lon="9.405527534000504"><ele>1174.5</ele><time>2026-04-29T12:28:08Z</time></trkpt><trkpt lat="40.07770469090444" lon="9.405546370070665"><ele>1176.3333333333333</ele><time>2026-04-29T12:28:09Z</time></trkpt><trkpt lat="40.07761900238331" lon="9.40558175963644"><ele>1178.1666666666665</ele><time>2026-04-29T12:28:10Z</time></trkpt><trkpt lat="40.0775282635061" lon="9.405607231437328"><ele>1180.0</ele><time>2026-04-29T12:28:11Z</time></trkpt><trkpt lat="40.07744415310119" lon="9.405624463662392"><ele>1182.0</ele><time>2026-04-29T12:28:12Z</time></trkpt><trkpt lat="40.07736242721013" lon="9.405616057684318"><ele>1184.0</ele><time>2026-04-29T12:28:13Z</time></trkpt><trkpt lat="40.077274568331944" lon="9.405593238792347"><ele>1186.0</ele><time>2026-04-29T12:28:14Z</time></trkpt><trkpt lat="40.07718428753708" lon="9.405565384219521"><ele>1188.0</ele><time>2026-04-29T12:28:15Z</time></trkpt><trkpt lat="40.077089011469376" lon="9.405540160995585"><ele>1190.0</ele><time>2026-04-29T12:28:16Z</time></trkpt><trkpt lat="40.07699477997962" lon="9.405521490117303"><ele>1190.0</ele><time>2026-04-29T12:28:17Z</time></trkpt><trkpt lat="40.076903545600736" lon="9.405513752617724"><ele>1190.0</ele><time>2026-04-29T12:28:18Z</time></trkpt><trkpt lat="40.076819164371344" lon="9.405512361704389"><ele>1190.0</ele><time>2026-04-29T12:28:19Z</time></trkpt><trkpt lat="40.07673650005412" lon="9.40551865710224"><ele>1190.0</ele><time>2026-04-29T12:28:20Z</time></trkpt><trkpt lat="40.076655842259285" lon="9.405531930888348"><ele>1190.0</ele><time>2026-04-29T12:28:21Z</time></trkpt><trkpt lat="40.0765718562237" lon="9.405542653664238"><ele>1190.0</ele><time>2026-04-29T12:28:22Z</time></trkpt><trkpt lat="40.07649578084382" lon="9.405556697638618"><ele>1189.3333333333335</ele><time>2026-04-29T12:28:23Z</time></trkpt><trkpt lat="40.07641583037717" lon="9.405572695261437"><ele>1188.6666666666667</ele><time>2026-04-29T12:28:24Z</time></trkpt><trkpt lat="40.07633798484557" lon="9.405592002683708"><ele>1188.0</ele><time>2026-04-29T12:28:25Z</time></trkpt><trkpt lat="40.07627174269171" lon="9.405618903812222"><ele>1187.3333333333333</ele><time>2026-04-29T12:28:26Z</time></trkpt><trkpt lat="40.07620517827017" lon="9.405659846892048"><ele>1186.6666666666665</ele><time>2026-04-29T12:28:27Z</time></trkpt><trkpt lat="40.076140215695624" lon="9.40571264242815"><ele>1186.0</ele><time>2026-04-29T12:28:28Z</time></trkpt><trkpt lat="40.07607879355652" lon="9.405775795995241"><ele>1186.0</ele><time>2026-04-29T12:28:29Z</time></trkpt><trkpt lat="40.076026486900126" lon="9.405834288359474"><ele>1186.0</ele><time>2026-04-29T12:28:30.001Z</time></trkpt><trkpt lat="40.07598144673131" lon="9.40589776414403"><ele>1186.0</ele><time>2026-04-29T12:28:31.001Z</time></trkpt><trkpt lat="40.0759165941344" lon="9.406048211869848"><ele>1186.0</ele><time>2026-04-29T12:28:33.001Z</time></trkpt><trkpt lat="40.075882794764865" lon="9.406126215520425"><ele>1186.0</ele><time>2026-04-29T12:28:34.001Z</time></trkpt><trkpt lat="40.07584909069941" lon="9.406206279477543"><ele>1186.0</ele><time>2026-04-29T12:28:35.001Z</time></trkpt><trkpt lat="40.075812713926325" lon="9.406280128843656"><ele>1186.142857142857</ele><time>2026-04-29T12:28:36.001Z</time></trkpt><trkpt lat="40.07577697286681" lon="9.406363108675086"><ele>1186.2857142857142</ele><time>2026-04-29T12:28:37.001Z</time></trkpt><trkpt lat="40.075748743977094" lon="9.406447671599672"><ele>1186.4285714285716</ele><time>2026-04-29T12:28:38.001Z</time></trkpt><trkpt lat="40.07573389666174" lon="9.406541200331475"><ele>1186.5714285714284</ele><time>2026-04-29T12:28:39.001Z</time></trkpt><trkpt lat="40.075715741527745" lon="9.406636192509929"><ele>1186.7142857142858</ele><time>2026-04-29T12:28:40.001Z</time></trkpt><trkpt lat="40.07568618203579" lon="9.406725800841512"><ele>1186.857142857143</ele><time>2026-04-29T12:28:41.001Z</time></trkpt><trkpt lat="40.075649354667114" lon="9.406810409578105"><ele>1187.0</ele><time>2026-04-29T12:28:42.001Z</time></trkpt><trkpt lat="40.07561931505669" lon="9.406913783011069"><ele>1187.0</ele><time>2026-04-29T12:28:43.001Z</time></trkpt><trkpt lat="40.075603069341156" lon="9.407010213885918"><ele>1187.0</ele><time>2026-04-29T12:28:44.001Z</time></trkpt><trkpt lat="40.075586436828196" lon="9.407115128938488"><ele>1187.0</ele><time>2026-04-29T12:28:45.001Z</time></trkpt><trkpt lat="40.07556287131075" lon="9.40721043281085"><ele>1187.0</ele><time>2026-04-29T12:28:46.001Z</time></trkpt><trkpt lat="40.07552560793464" lon="9.407295327208306"><ele>1187.0</ele><time>2026-04-29T12:28:47.001Z</time></trkpt><trkpt lat="40.075479907519984" lon="9.407378640599898"><ele>1187.0</ele><time>2026-04-29T12:28:48.001Z</time></trkpt><trkpt lat="40.07543733417979" lon="9.407460666394137"><ele>1191.8333333333335</ele><time>2026-04-29T12:28:49.001Z</time></trkpt><trkpt lat="40.07540074724002" lon="9.40755048088827"><ele>1196.6666666666667</ele><time>2026-04-29T12:28:50.001Z</time></trkpt><trkpt lat="40.07535957558303" lon="9.407620470530969"><ele>1201.5</ele><time>2026-04-29T12:28:51.001Z</time></trkpt><trkpt lat="40.075285246651745" lon="9.407658492155518"><ele>1206.3333333333333</ele><time>2026-04-29T12:28:53.001Z</time></trkpt><trkpt lat="40.07522802623134" lon="9.407618378068731"><ele>1211.1666666666665</ele><time>2026-04-29T12:28:55.001Z</time></trkpt><trkpt lat="40.075162011044384" lon="9.40755767430548"><ele>1216.0</ele><time>2026-04-29T12:28:57.001Z</time></trkpt><trkpt lat="40.075050688056294" lon="9.40752967064499"><ele>1216.0</ele><time>2026-04-29T12:28:59.001Z</time></trkpt><trkpt lat="40.07498622774123" lon="9.40753043606051"><ele>1216.0</ele><time>2026-04-29T12:29:00.001Z</time></trkpt><trkpt lat="40.07486548318927" lon="9.4075677094665"><ele>1216.0</ele><time>2026-04-29T12:29:02.001Z</time></trkpt><trkpt lat="40.074802371598544" lon="9.407592965810187"><ele>1216.0</ele><time>2026-04-29T12:29:03.001Z</time></trkpt><trkpt lat="40.07473835532112" lon="9.407612761098742"><ele>1216.0</ele><time>2026-04-29T12:29:04.001Z</time></trkpt><trkpt lat="40.07462147754293" lon="9.407658056875377"><ele>1216.0</ele><time>2026-04-29T12:29:06.001Z</time></trkpt><trkpt lat="40.074501478836545" lon="9.407732385740161"><ele>1216.0</ele><time>2026-04-29T12:29:08.001Z</time></trkpt><trkpt lat="40.07443266308986" lon="9.407757111078892"><ele>1216.0</ele><time>2026-04-29T12:29:09.001Z</time></trkpt><trkpt lat="40.07436485061838" lon="9.407773022710694"><ele>1216.0</ele><time>2026-04-29T12:29:10.001Z</time></trkpt><trkpt lat="40.07429823995672" lon="9.407791425079745"><ele>1216.0</ele><time>2026-04-29T12:29:11.001Z</time></trkpt><trkpt lat="40.07422526186687" lon="9.407808036336034"><ele>1216.0</ele><time>2026-04-29T12:29:12.001Z</time></trkpt><trkpt lat="40.07415326534109" lon="9.407828458052547"><ele>1216.0</ele><time>2026-04-29T12:29:13.001Z</time></trkpt><trkpt lat="40.074071302250125" lon="9.407847483063568"><ele>1216.0</ele><time>2026-04-29T12:29:14.001Z</time></trkpt><trkpt lat="40.07398281071785" lon="9.40788069913026"><ele>1215.3333333333333</ele><time>2026-04-29T12:29:15.001Z</time></trkpt><trkpt lat="40.07390829410057" lon="9.40791854700743"><ele>1214.6666666666665</ele><time>2026-04-29T12:29:16.001Z</time></trkpt><trkpt lat="40.07382627986765" lon="9.407950586792978"><ele>1214.0</ele><time>2026-04-29T12:29:17.001Z</time></trkpt><trkpt lat="40.07376114698945" lon="9.407986474223797"><ele>1213.3333333333333</ele><time>2026-04-29T12:29:18.001Z</time></trkpt><trkpt lat="40.07370723206071" lon="9.408029424318336"><ele>1212.6666666666667</ele><time>2026-04-29T12:29:19.001Z</time></trkpt><trkpt lat="40.073623125657015" lon="9.4081174279931"><ele>1212.0</ele><time>2026-04-29T12:29:21.001Z</time></trkpt><trkpt lat="40.07357417804571" lon="9.408188904319932"><ele>1217.2</ele><time>2026-04-29T12:29:22.001Z</time></trkpt><trkpt lat="40.073495991027" lon="9.40830900313857"><ele>1222.4</ele><time>2026-04-29T12:29:24.001Z</time></trkpt><trkpt lat="40.07345823665359" lon="9.40839056883587"><ele>1227.6</ele><time>2026-04-29T12:29:25.001Z</time></trkpt><trkpt lat="40.073423342370354" lon="9.408479130645777"><ele>1232.8</ele><time>2026-04-29T12:29:26.001Z</time></trkpt><trkpt lat="40.07334810639425" lon="9.408577612887957"><ele>1238.0</ele><time>2026-04-29T12:29:28.001Z</time></trkpt><trkpt lat="40.073241961840466" lon="9.408609000693401"><ele>1238.0</ele><time>2026-04-29T12:29:30.001Z</time></trkpt><trkpt lat="40.073179211634574" lon="9.408665224121643"><ele>1238.0</ele><time>2026-04-29T12:29:31.001Z</time></trkpt><trkpt lat="40.07312584258148" lon="9.408736072742688"><ele>1238.0</ele><time>2026-04-29T12:29:32.001Z</time></trkpt><trkpt lat="40.07307962564203" lon="9.408806824069375"><ele>1238.0</ele><time>2026-04-29T12:29:33.001Z</time></trkpt><trkpt lat="40.07301870663038" lon="9.408874962299633"><ele>1238.0</ele><time>2026-04-29T12:29:34.001Z</time></trkpt><trkpt lat="40.07295464715528" lon="9.408908603724408"><ele>1238.0</ele><time>2026-04-29T12:29:35.001Z</time></trkpt><trkpt lat="40.07289566331846" lon="9.408949382978525"><ele>1238.0</ele><time>2026-04-29T12:29:36.001Z</time></trkpt><trkpt lat="40.07281571585641" lon="9.409003329120013"><ele>1242.1666666666667</ele><time>2026-04-29T12:29:38.001Z</time></trkpt><trkpt lat="40.07272150094307" lon="9.408928692047695"><ele>1246.3333333333335</ele><time>2026-04-29T12:29:41.001Z</time></trkpt><trkpt lat="40.07261785469864" lon="9.408871770424378"><ele>1250.5</ele><time>2026-04-29T12:29:43.001Z</time></trkpt><trkpt lat="40.07255325890492" lon="9.408880323612742"><ele>1254.6666666666667</ele><time>2026-04-29T12:29:44.001Z</time></trkpt><trkpt lat="40.072476777291854" lon="9.408908549935788"><ele>1258.8333333333333</ele><time>2026-04-29T12:29:45.001Z</time></trkpt><trkpt lat="40.0724051196979" lon="9.408932607605806"><ele>1263.0</ele><time>2026-04-29T12:29:46.001Z</time></trkpt><trkpt lat="40.072314246039205" lon="9.40894976710419"><ele>1263.4</ele><time>2026-04-29T12:29:47.001Z</time></trkpt><trkpt lat="40.072227998841605" lon="9.408975067988392"><ele>1263.8</ele><time>2026-04-29T12:29:48.001Z</time></trkpt><trkpt lat="40.07214057496622" lon="9.409009502773694"><ele>1264.2</ele><time>2026-04-29T12:29:49.001Z</time></trkpt><trkpt lat="40.072064924625074" lon="9.40903806898591"><ele>1264.6</ele><time>2026-04-29T12:29:50.001Z</time></trkpt><trkpt lat="40.07199049990564" lon="9.409058375595967"><ele>1265.0</ele><time>2026-04-29T12:29:51.001Z</time></trkpt><trkpt lat="40.0718676732794" lon="9.409060284736185"><ele>1265.0</ele><time>2026-04-29T12:29:53.001Z</time></trkpt><trkpt lat="40.0717929135392" lon="9.409048685039613"><ele>1265.0</ele><time>2026-04-29T12:29:54Z</time></trkpt><trkpt lat="40.071714202607026" lon="9.40902978686945"><ele>1265.0</ele><time>2026-04-29T12:29:55Z</time></trkpt><trkpt lat="40.07164060469272" lon="9.409028733909565"><ele>1265.0</ele><time>2026-04-29T12:29:56Z</time></trkpt><trkpt lat="40.07156300783588" lon="9.409043878501867"><ele>1265.0</ele><time>2026-04-29T12:29:57Z</time></trkpt><trkpt lat="40.07148958311897" lon="9.409067402783348"><ele>1265.0</ele><time>2026-04-29T12:29:58Z</time></trkpt><trkpt lat="40.071418110972154" lon="9.409110589019308"><ele>1262.8333333333335</ele><time>2026-04-29T12:29:59Z</time></trkpt><trkpt lat="40.071343003489595" lon="9.409165539959641"><ele>1260.6666666666667</ele><time>2026-04-29T12:30:00Z</time></trkpt><trkpt lat="40.071270139416264" lon="9.409224710378092"><ele>1258.5</ele><time>2026-04-29T12:30:01Z</time></trkpt><trkpt lat="40.07120092493154" lon="9.409282177242687"><ele>1256.3333333333333</ele><time>2026-04-29T12:30:02Z</time></trkpt><trkpt lat="40.07114168519033" lon="9.409337792026744"><ele>1254.1666666666665</ele><time>2026-04-29T12:30:03Z</time></trkpt><trkpt lat="40.071088668773484" lon="9.409399258762113"><ele>1252.0</ele><time>2026-04-29T12:30:04Z</time></trkpt><trkpt lat="40.07103991529752" lon="9.40947414935996"><ele>1252.0</ele><time>2026-04-29T12:30:05Z</time></trkpt><trkpt lat="40.07098247384157" lon="9.409541055026404"><ele>1252.0</ele><time>2026-04-29T12:30:06Z</time></trkpt><trkpt lat="40.070929442799105" lon="9.409613995037459"><ele>1252.0</ele><time>2026-04-29T12:30:07Z</time></trkpt><trkpt lat="40.07086629170134" lon="9.40968168662017"><ele>1252.0</ele><time>2026-04-29T12:30:08Z</time></trkpt><trkpt lat="40.07081478563184" lon="9.40975084993873"><ele>1252.0</ele><time>2026-04-29T12:30:09Z</time></trkpt><trkpt lat="40.07074946584859" lon="9.409901088047208"><ele>1252.0</ele><time>2026-04-29T12:30:11Z</time></trkpt><trkpt lat="40.07072210508816" lon="9.409977611961631"><ele>1253.1666666666665</ele><time>2026-04-29T12:30:12Z</time></trkpt><trkpt lat="40.070676440656236" lon="9.410058609643603"><ele>1254.3333333333333</ele><time>2026-04-29T12:30:13Z</time></trkpt><trkpt lat="40.07062960234664" lon="9.410136734780156"><ele>1255.5</ele><time>2026-04-29T12:30:14Z</time></trkpt><trkpt lat="40.070537599773004" lon="9.410213693865323"><ele>1256.6666666666667</ele><time>2026-04-29T12:30:16Z</time></trkpt><trkpt lat="40.07047880035662" lon="9.410267289937098"><ele>1257.8333333333335</ele><time>2026-04-29T12:30:17Z</time></trkpt><trkpt lat="40.07043290095534" lon="9.410329600406415"><ele>1259.0</ele><time>2026-04-29T12:30:18Z</time></trkpt><trkpt lat="40.07038875312526" lon="9.41040512568558"><ele>1264.2</ele><time>2026-04-29T12:30:19Z</time></trkpt><trkpt lat="40.07031492521318" lon="9.410563921560687"><ele>1269.4</ele><time>2026-04-29T12:30:21Z</time></trkpt><trkpt lat="40.07026826198805" lon="9.410630960012506"><ele>1274.6</ele><time>2026-04-29T12:30:22Z</time></trkpt><trkpt lat="40.070211208597364" lon="9.410681674454288"><ele>1279.8</ele><time>2026-04-29T12:30:23Z</time></trkpt><trkpt lat="40.07011325436131" lon="9.410748223959224"><ele>1285.0</ele><time>2026-04-29T12:30:25Z</time></trkpt><trkpt lat="40.07013361510284" lon="9.4108264452791"><ele>1285.0</ele><time>2026-04-29T12:30:29Z</time></trkpt><trkpt lat="40.07023805309971" lon="9.410826739585659"><ele>1285.0</ele><time>2026-04-29T12:30:32Z</time></trkpt><trkpt lat="40.07031799480952" lon="9.410794878255285"><ele>1285.0</ele><time>2026-04-29T12:30:34Z</time></trkpt><trkpt lat="40.07038778000072" lon="9.410756369522547"><ele>1285.0</ele><time>2026-04-29T12:30:35Z</time></trkpt><trkpt lat="40.07044382520059" lon="9.410712628720876"><ele>1285.0</ele><time>2026-04-29T12:30:36Z</time></trkpt><trkpt lat="40.070508898260044" lon="9.410653494052456"><ele>1285.0</ele><time>2026-04-29T12:30:37Z</time></trkpt><trkpt lat="40.07056857656997" lon="9.410599663225273"><ele>1285.0</ele><time>2026-04-29T12:30:38Z</time></trkpt><trkpt lat="40.070627871297965" lon="9.41055027107797"><ele>1285.0</ele><time>2026-04-29T12:30:39Z</time></trkpt><trkpt lat="40.07073532798" lon="9.41048180528316"><ele>1285.0</ele><time>2026-04-29T12:30:41Z</time></trkpt><trkpt lat="40.070854697368944" lon="9.410435852957463"><ele>1285.0</ele><time>2026-04-29T12:30:43Z</time></trkpt><trkpt lat="40.070917660557136" lon="9.4104154283717"><ele>1285.0</ele><time>2026-04-29T12:30:44Z</time></trkpt><trkpt lat="40.07098172001813" lon="9.410377637283096"><ele>1285.0</ele><time>2026-04-29T12:30:45Z</time></trkpt><trkpt lat="40.07104019914655" lon="9.41033680253673"><ele>1283.857142857143</ele><time>2026-04-29T12:30:46Z</time></trkpt><trkpt lat="40.07110296037225" lon="9.410311872308238"><ele>1282.7142857142858</ele><time>2026-04-29T12:30:47Z</time></trkpt><trkpt lat="40.071173423232125" lon="9.410293637496356"><ele>1281.5714285714284</ele><time>2026-04-29T12:30:48Z</time></trkpt><trkpt lat="40.071251427684615" lon="9.410272182448853"><ele>1280.4285714285716</ele><time>2026-04-29T12:30:49Z</time></trkpt><trkpt lat="40.071323787004616" lon="9.410248239614027"><ele>1279.2857142857142</ele><time>2026-04-29T12:30:50Z</time></trkpt><trkpt lat="40.07140181794574" lon="9.4102354006262"><ele>1278.142857142857</ele><time>2026-04-29T12:30:51Z</time></trkpt><trkpt lat="40.07147721717301" lon="9.410239408634371"><ele>1277.0</ele><time>2026-04-29T12:30:52Z</time></trkpt><trkpt lat="40.0715481168179" lon="9.410254064712635"><ele>1279.8</ele><time>2026-04-29T12:30:53Z</time></trkpt><trkpt lat="40.07162240841958" lon="9.41028577181079"><ele>1282.6</ele><time>2026-04-29T12:30:54Z</time></trkpt><trkpt lat="40.07174638844729" lon="9.410330231045327"><ele>1285.3999999999999</ele><time>2026-04-29T12:30:56Z</time></trkpt><trkpt lat="40.071811006708096" lon="9.410362847388908"><ele>1288.2</ele><time>2026-04-29T12:30:57Z</time></trkpt><trkpt lat="40.071929186199334" lon="9.410414010587994"><ele>1291.0</ele><time>2026-04-29T12:30:59Z</time></trkpt><trkpt lat="40.07199780129587" lon="9.410431920792359"><ele>1291.0</ele><time>2026-04-29T12:31:00Z</time></trkpt><trkpt lat="40.072071331808466" lon="9.410452825861142"><ele>1291.0</ele><time>2026-04-29T12:31:01Z</time></trkpt><trkpt lat="40.072140338280654" lon="9.41047321547443"><ele>1291.0</ele><time>2026-04-29T12:31:02Z</time></trkpt><trkpt lat="40.07221964334968" lon="9.410506501195176"><ele>1291.0</ele><time>2026-04-29T12:31:03Z</time></trkpt><trkpt lat="40.07229721758127" lon="9.410545977574374"><ele>1291.0</ele><time>2026-04-29T12:31:04Z</time></trkpt><trkpt lat="40.07237714301529" lon="9.410586805687315"><ele>1291.0</ele><time>2026-04-29T12:31:05Z</time></trkpt><trkpt lat="40.072452474860995" lon="9.41062493981771"><ele>1296.0</ele><time>2026-04-29T12:31:06Z</time></trkpt><trkpt lat="40.072534995102544" lon="9.410662834400632"><ele>1301.0</ele><time>2026-04-29T12:31:07Z</time></trkpt><trkpt lat="40.07262490392253" lon="9.410702726777522"><ele>1306.0</ele><time>2026-04-29T12:31:08Z</time></trkpt><trkpt lat="40.07271855712803" lon="9.410745113152974"><ele>1311.0</ele><time>2026-04-29T12:31:09.001Z</time></trkpt><trkpt lat="40.07281574404214" lon="9.410792711835535"><ele>1316.0</ele><time>2026-04-29T12:31:10.001Z</time></trkpt><trkpt lat="40.072900092303506" lon="9.410840973066673"><ele>1316.0</ele><time>2026-04-29T12:31:11.001Z</time></trkpt><trkpt lat="40.072976197204135" lon="9.41088981665737"><ele>1316.0</ele><time>2026-04-29T12:31:12.001Z</time></trkpt><trkpt lat="40.07305642404341" lon="9.410948876395594"><ele>1316.0</ele><time>2026-04-29T12:31:13.001Z</time></trkpt><trkpt lat="40.073134832107954" lon="9.410999985799627"><ele>1316.0</ele><time>2026-04-29T12:31:14.001Z</time></trkpt><trkpt lat="40.07322072806092" lon="9.411038780991863"><ele>1316.0</ele><time>2026-04-29T12:31:15.001Z</time></trkpt><trkpt lat="40.073312121886" lon="9.411076465028497"><ele>1315.3333333333335</ele><time>2026-04-29T12:31:16.001Z</time></trkpt><trkpt lat="40.073403402822606" lon="9.411108494169893"><ele>1314.6666666666667</ele><time>2026-04-29T12:31:17.001Z</time></trkpt><trkpt lat="40.07349511070193" lon="9.411130263206656"><ele>1314.0</ele><time>2026-04-29T12:31:18.001Z</time></trkpt><trkpt lat="40.07358629650875" lon="9.411146086407355"><ele>1313.3333333333333</ele><time>2026-04-29T12:31:19.001Z</time></trkpt><trkpt lat="40.073670036416424" lon="9.41114573947006"><ele>1312.6666666666665</ele><time>2026-04-29T12:31:20.001Z</time></trkpt><trkpt lat="40.07375404842889" lon="9.411142126864801"><ele>1312.0</ele><time>2026-04-29T12:31:21.001Z</time></trkpt><trkpt lat="40.07383763004776" lon="9.411149569014313"><ele>1312.0</ele><time>2026-04-29T12:31:22.001Z</time></trkpt><trkpt lat="40.073917755807706" lon="9.411168594670388"><ele>1312.0</ele><time>2026-04-29T12:31:23.001Z</time></trkpt><trkpt lat="40.07400818518709" lon="9.411191596251596"><ele>1312.0</ele><time>2026-04-29T12:31:24.001Z</time></trkpt><trkpt lat="40.07409492250511" lon="9.411219972037284"><ele>1312.0</ele><time>2026-04-29T12:31:25.001Z</time></trkpt><trkpt lat="40.074183761441546" lon="9.411241435985831"><ele>1312.0</ele><time>2026-04-29T12:31:26.001Z</time></trkpt><trkpt lat="40.07427392609392" lon="9.411254647638934"><ele>1312.0</ele><time>2026-04-29T12:31:27.001Z</time></trkpt><trkpt lat="40.074376421853344" lon="9.411264973075173"><ele>1312.8333333333333</ele><time>2026-04-29T12:31:28.001Z</time></trkpt><trkpt lat="40.07447360107304" lon="9.411274226998495"><ele>1313.6666666666665</ele><time>2026-04-29T12:31:29.001Z</time></trkpt><trkpt lat="40.07456241427322" lon="9.411283314810946"><ele>1314.5</ele><time>2026-04-29T12:31:30.001Z</time></trkpt><trkpt lat="40.07464852592229" lon="9.411280947214898"><ele>1315.3333333333333</ele><time>2026-04-29T12:31:31.001Z</time></trkpt><trkpt lat="40.07472475588983" lon="9.411267792513986"><ele>1316.1666666666667</ele><time>2026-04-29T12:31:32.001Z</time></trkpt><trkpt lat="40.07478759573578" lon="9.411240587573726"><ele>1317.0</ele><time>2026-04-29T12:31:33.001Z</time></trkpt><trkpt lat="40.07485095697385" lon="9.411204059193187"><ele>1317.6</ele><time>2026-04-29T12:31:34.001Z</time></trkpt><trkpt lat="40.07496761556475" lon="9.411159800440517"><ele>1318.1999999999998</ele><time>2026-04-29T12:31:36.001Z</time></trkpt><trkpt lat="40.07509379136187" lon="9.411160552942691"><ele>1318.8</ele><time>2026-04-29T12:31:38.001Z</time></trkpt><trkpt lat="40.075222872088304" lon="9.411147018073821"><ele>1319.4</ele><time>2026-04-29T12:31:40.001Z</time></trkpt><trkpt lat="40.075293081239806" lon="9.411130624840833"><ele>1320.0</ele><time>2026-04-29T12:31:41.001Z</time></trkpt><trkpt lat="40.0753607615408" lon="9.411109009464347"><ele>1320.0</ele><time>2026-04-29T12:31:42.001Z</time></trkpt><trkpt lat="40.07542446260086" lon="9.411088659111874"><ele>1320.0</ele><time>2026-04-29T12:31:43.001Z</time></trkpt><trkpt lat="40.07549071610983" lon="9.411070664620764"><ele>1320.0</ele><time>2026-04-29T12:31:44.001Z</time></trkpt><trkpt lat="40.07561151928043" lon="9.411058372071933"><ele>1320.0</ele><time>2026-04-29T12:31:46.001Z</time></trkpt><trkpt lat="40.07573114343463" lon="9.411041098583453"><ele>1320.0</ele><time>2026-04-29T12:31:48.001Z</time></trkpt><trkpt lat="40.07585198977125" lon="9.41104138243174"><ele>1319.1428571428573</ele><time>2026-04-29T12:31:50.001Z</time></trkpt><trkpt lat="40.0759157681711" lon="9.411042057950938"><ele>1318.2857142857142</ele><time>2026-04-29T12:31:51.001Z</time></trkpt><trkpt lat="40.07598508668092" lon="9.411044154474517"><ele>1317.4285714285716</ele><time>2026-04-29T12:31:52.001Z</time></trkpt><trkpt lat="40.07605963721049" lon="9.411044289192406"><ele>1316.5714285714287</ele><time>2026-04-29T12:31:53.001Z</time></trkpt><trkpt lat="40.07613339573692" lon="9.41104783356914"><ele>1315.7142857142858</ele><time>2026-04-29T12:31:54.001Z</time></trkpt><trkpt lat="40.07620816081222" lon="9.411048971379277"><ele>1314.857142857143</ele><time>2026-04-29T12:31:55.001Z</time></trkpt><trkpt lat="40.07627745479421" lon="9.411050098577144"><ele>1314.0</ele><time>2026-04-29T12:31:56.001Z</time></trkpt><trkpt lat="40.07634838969188" lon="9.411059423656535"><ele>1314.0</ele><time>2026-04-29T12:31:57.001Z</time></trkpt><trkpt lat="40.07642327796344" lon="9.411066483354936"><ele>1314.0</ele><time>2026-04-29T12:31:58.001Z</time></trkpt><trkpt lat="40.076499123003885" lon="9.411072358615485"><ele>1314.0</ele><time>2026-04-29T12:31:59Z</time></trkpt><trkpt lat="40.07656860146111" lon="9.411070663438357"><ele>1314.0</ele><time>2026-04-29T12:32:00Z</time></trkpt><trkpt lat="40.076639434617825" lon="9.411070045181289"><ele>1314.0</ele><time>2026-04-29T12:32:01Z</time></trkpt><trkpt lat="40.07671208731766" lon="9.41106983840099"><ele>1314.0</ele><time>2026-04-29T12:32:02Z</time></trkpt><trkpt lat="40.076789655845225" lon="9.411060830441542"><ele>1314.0</ele><time>2026-04-29T12:32:03Z</time></trkpt><trkpt lat="40.07686545786748" lon="9.41105173241405"><ele>1311.6666666666667</ele><time>2026-04-29T12:32:04Z</time></trkpt><trkpt lat="40.07694062783774" lon="9.411042184114363"><ele>1309.3333333333333</ele><time>2026-04-29T12:32:05Z</time></trkpt><trkpt lat="40.077015992389626" lon="9.411035006122207"><ele>1307.0</ele><time>2026-04-29T12:32:06Z</time></trkpt><trkpt lat="40.07708921974803" lon="9.411023435238524"><ele>1304.6666666666665</ele><time>2026-04-29T12:32:07Z</time></trkpt><trkpt lat="40.07715428363076" lon="9.41101175677897"><ele>1302.3333333333333</ele><time>2026-04-29T12:32:08Z</time></trkpt><trkpt lat="40.07727388630383" lon="9.41097595977261"><ele>1300.0</ele><time>2026-04-29T12:32:10Z</time></trkpt><trkpt lat="40.07738702477216" lon="9.410948280447956"><ele>1298.6</ele><time>2026-04-29T12:32:12Z</time></trkpt><trkpt lat="40.07750313431663" lon="9.410946536125383"><ele>1297.2</ele><time>2026-04-29T12:32:14Z</time></trkpt><trkpt lat="40.077614601097196" lon="9.410968785617824"><ele>1295.8000000000002</ele><time>2026-04-29T12:32:16Z</time></trkpt><trkpt lat="40.07767815044386" lon="9.410989712817683"><ele>1294.4</ele><time>2026-04-29T12:32:17Z</time></trkpt><trkpt lat="40.07779698840485" lon="9.41103103918348"><ele>1293.0</ele><time>2026-04-29T12:32:19Z</time></trkpt><trkpt lat="40.07791170182594" lon="9.411065792849257"><ele>1293.0</ele><time>2026-04-29T12:32:21Z</time></trkpt><trkpt lat="40.07802679816365" lon="9.411098760293497"><ele>1293.0</ele><time>2026-04-29T12:32:23Z</time></trkpt><trkpt lat="40.07813687559712" lon="9.411144233400714"><ele>1293.0</ele><time>2026-04-29T12:32:25Z</time></trkpt><trkpt lat="40.07823728215944" lon="9.411191305348025"><ele>1293.0</ele><time>2026-04-29T12:32:27Z</time></trkpt><trkpt lat="40.07834210128183" lon="9.411224062167825"><ele>1293.0</ele><time>2026-04-29T12:32:29Z</time></trkpt><trkpt lat="40.07840339670798" lon="9.41125192124236"><ele>1294.0</ele><time>2026-04-29T12:32:30Z</time></trkpt><trkpt lat="40.07852701102727" lon="9.411304448478813"><ele>1295.0</ele><time>2026-04-29T12:32:32Z</time></trkpt><trkpt lat="40.07859257295841" lon="9.411324171617805"><ele>1296.0</ele><time>2026-04-29T12:32:33Z</time></trkpt><trkpt lat="40.07870854448036" lon="9.4113661531614"><ele>1297.0</ele><time>2026-04-29T12:32:35Z</time></trkpt><trkpt lat="40.078819795328535" lon="9.411412445457891"><ele>1298.0</ele><time>2026-04-29T12:32:37Z</time></trkpt><trkpt lat="40.07892738385301" lon="9.411484172507453"><ele>1297.9999999999998</ele><time>2026-04-29T12:32:39Z</time></trkpt><trkpt lat="40.07898789642405" lon="9.41152688783016"><ele>1298.0</ele><time>2026-04-29T12:32:40Z</time></trkpt><trkpt lat="40.07905073955195" lon="9.411582318900097"><ele>1298.0</ele><time>2026-04-29T12:32:41Z</time></trkpt><trkpt lat="40.07911523424656" lon="9.411642353641852"><ele>1298.0</ele><time>2026-04-29T12:32:42Z</time></trkpt><trkpt lat="40.07916985147731" lon="9.411699190936806"><ele>1298.0</ele><time>2026-04-29T12:32:43.001Z</time></trkpt><trkpt lat="40.07922903165779" lon="9.411759498766465"><ele>1297.9999999999998</ele><time>2026-04-29T12:32:44.001Z</time></trkpt><trkpt lat="40.07929102655457" lon="9.41181529829322"><ele>1298.0</ele><time>2026-04-29T12:32:45.001Z</time></trkpt><trkpt lat="40.079356441715696" lon="9.411873193471672"><ele>1297.6666666666667</ele><time>2026-04-29T12:32:46.001Z</time></trkpt><trkpt lat="40.079422484340014" lon="9.411930043432896"><ele>1297.3333333333335</ele><time>2026-04-29T12:32:47.001Z</time></trkpt><trkpt lat="40.0794850244036" lon="9.411982669726367"><ele>1297.0</ele><time>2026-04-29T12:32:48.001Z</time></trkpt><trkpt lat="40.07954977026784" lon="9.412042684541953"><ele>1296.6666666666667</ele><time>2026-04-29T12:32:49.001Z</time></trkpt><trkpt lat="40.07961283087481" lon="9.412103664666768"><ele>1296.3333333333333</ele><time>2026-04-29T12:32:50.001Z</time></trkpt><trkpt lat="40.07967484167644" lon="9.412170802465349"><ele>1296.0</ele><time>2026-04-29T12:32:51.001Z</time></trkpt><trkpt lat="40.07973861255088" lon="9.412241723175098"><ele>1296.0</ele><time>2026-04-29T12:32:52.001Z</time></trkpt><trkpt lat="40.0797930230058" lon="9.412313466431014"><ele>1296.0</ele><time>2026-04-29T12:32:53.001Z</time></trkpt><trkpt lat="40.07984110091886" lon="9.412397977473592"><ele>1296.0</ele><time>2026-04-29T12:32:54.001Z</time></trkpt><trkpt lat="40.0798789648894" lon="9.41249293621702"><ele>1296.0</ele><time>2026-04-29T12:32:55.001Z</time></trkpt><trkpt lat="40.07991856873388" lon="9.41257181455473"><ele>1296.0</ele><time>2026-04-29T12:32:56.001Z</time></trkpt><trkpt lat="40.07996490178301" lon="9.412646882332862"><ele>1296.0</ele><time>2026-04-29T12:32:57.001Z</time></trkpt><trkpt lat="40.080013971235" lon="9.412716207631982"><ele>1292.8333333333333</ele><time>2026-04-29T12:32:58.001Z</time></trkpt><trkpt lat="40.08007216000654" lon="9.412779056659966"><ele>1289.6666666666667</ele><time>2026-04-29T12:32:59.001Z</time></trkpt><trkpt lat="40.080133784697196" lon="9.412836605015734"><ele>1286.5</ele><time>2026-04-29T12:33:00.001Z</time></trkpt><trkpt lat="40.080211560935936" lon="9.412888236852215"><ele>1283.3333333333335</ele><time>2026-04-29T12:33:01.001Z</time></trkpt><trkpt lat="40.08029034558732" lon="9.412935362945593"><ele>1280.1666666666667</ele><time>2026-04-29T12:33:02.001Z</time></trkpt><trkpt lat="40.080370624284186" lon="9.412984391739135"><ele>1277.0</ele><time>2026-04-29T12:33:03.001Z</time></trkpt><trkpt lat="40.080457425435355" lon="9.413039336283306"><ele>1277.0</ele><time>2026-04-29T12:33:04.001Z</time></trkpt><trkpt lat="40.08053387719144" lon="9.413076561763788"><ele>1277.0</ele><time>2026-04-29T12:33:05.001Z</time></trkpt><trkpt lat="40.0806220947485" lon="9.413106838275924"><ele>1277.0</ele><time>2026-04-29T12:33:06.001Z</time></trkpt><trkpt lat="40.080705507825094" lon="9.41311219171258"><ele>1277.0</ele><time>2026-04-29T12:33:07.001Z</time></trkpt><trkpt lat="40.080790210066006" lon="9.413107982167286"><ele>1277.0</ele><time>2026-04-29T12:33:08.001Z</time></trkpt><trkpt lat="40.08087309087177" lon="9.413098033452782"><ele>1277.0</ele><time>2026-04-29T12:33:09.001Z</time></trkpt><trkpt lat="40.08095988559199" lon="9.413087274769277"><ele>1276.0</ele><time>2026-04-29T12:33:10.001Z</time></trkpt><trkpt lat="40.0810430015884" lon="9.413084681659821"><ele>1275.0</ele><time>2026-04-29T12:33:11.001Z</time></trkpt><trkpt lat="40.08111266902718" lon="9.41309602174874"><ele>1274.0</ele><time>2026-04-29T12:33:12.001Z</time></trkpt><trkpt lat="40.08118311735676" lon="9.41312276291571"><ele>1273.0</ele><time>2026-04-29T12:33:13.001Z</time></trkpt><trkpt lat="40.081248339645384" lon="9.413164921378748"><ele>1272.0</ele><time>2026-04-29T12:33:14.001Z</time></trkpt><trkpt lat="40.08131767217125" lon="9.4132207167901"><ele>1271.0</ele><time>2026-04-29T12:33:15.001Z</time></trkpt><trkpt lat="40.081387303692416" lon="9.413269073243056"><ele>1271.0</ele><time>2026-04-29T12:33:16.001Z</time></trkpt><trkpt lat="40.08145470716716" lon="9.413314703177646"><ele>1271.0</ele><time>2026-04-29T12:33:17.001Z</time></trkpt><trkpt lat="40.08152567853453" lon="9.413355430021577"><ele>1271.0</ele><time>2026-04-29T12:33:18.001Z</time></trkpt><trkpt lat="40.08159597745525" lon="9.413399703088624"><ele>1271.0</ele><time>2026-04-29T12:33:19.001Z</time></trkpt><trkpt lat="40.081661515408825" lon="9.413443282592409"><ele>1271.0</ele><time>2026-04-29T12:33:20.001Z</time></trkpt><trkpt lat="40.08172451741926" lon="9.413491730948413"><ele>1271.0</ele><time>2026-04-29T12:33:21.001Z</time></trkpt><trkpt lat="40.08178526787664" lon="9.413541270777358"><ele>1271.5</ele><time>2026-04-29T12:33:22.001Z</time></trkpt><trkpt lat="40.081855141011616" lon="9.413582973470167"><ele>1272.0</ele><time>2026-04-29T12:33:23.001Z</time></trkpt><trkpt lat="40.08193049176401" lon="9.413612209390825"><ele>1272.5</ele><time>2026-04-29T12:33:24.001Z</time></trkpt><trkpt lat="40.082010955290215" lon="9.413627696785715"><ele>1273.0</ele><time>2026-04-29T12:33:25.001Z</time></trkpt><trkpt lat="40.082088738519694" lon="9.413632755626764"><ele>1273.5</ele><time>2026-04-29T12:33:26.001Z</time></trkpt><trkpt lat="40.08217695601272" lon="9.413640991425611"><ele>1274.0</ele><time>2026-04-29T12:33:27.001Z</time></trkpt><trkpt lat="40.082260654382765" lon="9.413654539282742"><ele>1274.0</ele><time>2026-04-29T12:33:28.001Z</time></trkpt><trkpt lat="40.08234884018536" lon="9.413681065225433"><ele>1274.0</ele><time>2026-04-29T12:33:29.001Z</time></trkpt><trkpt lat="40.08243259313838" lon="9.413717384187928"><ele>1274.0</ele><time>2026-04-29T12:33:30.001Z</time></trkpt><trkpt lat="40.08251476224199" lon="9.413747014588006"><ele>1274.0</ele><time>2026-04-29T12:33:31.001Z</time></trkpt><trkpt lat="40.08261266097924" lon="9.413784931798821"><ele>1274.0</ele><time>2026-04-29T12:33:32.001Z</time></trkpt><trkpt lat="40.08270990639456" lon="9.413802686129257"><ele>1274.8</ele><time>2026-04-29T12:33:33.001Z</time></trkpt><trkpt lat="40.0828128227176" lon="9.41381979558456"><ele>1275.6000000000001</ele><time>2026-04-29T12:33:34.001Z</time></trkpt><trkpt lat="40.082905261362654" lon="9.41383344066682"><ele>1276.4</ele><time>2026-04-29T12:33:35.001Z</time></trkpt><trkpt lat="40.08300358875339" lon="9.413846851942065"><ele>1277.2</ele><time>2026-04-29T12:33:37.001Z</time></trkpt><trkpt lat="40.083141857029865" lon="9.413896710393098"><ele>1278.0</ele><time>2026-04-29T12:33:39.001Z</time></trkpt><trkpt lat="40.083214855499364" lon="9.413938801496416"><ele>1281.8333333333333</ele><time>2026-04-29T12:33:40.001Z</time></trkpt><trkpt lat="40.08328888629612" lon="9.4139706882928"><ele>1285.6666666666667</ele><time>2026-04-29T12:33:41.001Z</time></trkpt><trkpt lat="40.08336418488289" lon="9.413975506321968"><ele>1289.5</ele><time>2026-04-29T12:33:42.001Z</time></trkpt><trkpt lat="40.08342906872992" lon="9.413955259525656"><ele>1293.3333333333335</ele><time>2026-04-29T12:33:43.001Z</time></trkpt><trkpt lat="40.083507201235726" lon="9.413930247481169"><ele>1297.1666666666667</ele><time>2026-04-29T12:33:44.001Z</time></trkpt><trkpt lat="40.08359145381731" lon="9.413896857235567"><ele>1301.0</ele><time>2026-04-29T12:33:45.001Z</time></trkpt><trkpt lat="40.083700997091256" lon="9.41387548253"><ele>1301.0</ele><time>2026-04-29T12:33:46.001Z</time></trkpt><trkpt lat="40.083797428230525" lon="9.413864690848628"><ele>1301.0</ele><time>2026-04-29T12:33:47.001Z</time></trkpt><trkpt lat="40.08389175020812" lon="9.413871965912374"><ele>1301.0</ele><time>2026-04-29T12:33:48.001Z</time></trkpt><trkpt lat="40.08398114773267" lon="9.413893274641357"><ele>1301.0</ele><time>2026-04-29T12:33:49.001Z</time></trkpt><trkpt lat="40.08406693734846" lon="9.413919840472788"><ele>1301.0</ele><time>2026-04-29T12:33:50.001Z</time></trkpt><trkpt lat="40.08415286305863" lon="9.413937317823441"><ele>1301.1666666666667</ele><time>2026-04-29T12:33:51.001Z</time></trkpt><trkpt lat="40.08423726688804" lon="9.413949735945648"><ele>1301.3333333333335</ele><time>2026-04-29T12:33:52.001Z</time></trkpt><trkpt lat="40.084315721576715" lon="9.413972919826099"><ele>1301.5</ele><time>2026-04-29T12:33:53.001Z</time></trkpt><trkpt lat="40.08440390404548" lon="9.414012739424468"><ele>1301.6666666666667</ele><time>2026-04-29T12:33:54.001Z</time></trkpt><trkpt lat="40.08448578372547" lon="9.414060751028876"><ele>1301.8333333333333</ele><time>2026-04-29T12:33:55.001Z</time></trkpt><trkpt lat="40.084570785319144" lon="9.41410834307043"><ele>1302.0</ele><time>2026-04-29T12:33:56.001Z</time></trkpt><trkpt lat="40.084657556343444" lon="9.414156517254309"><ele>1302.0</ele><time>2026-04-29T12:33:57.001Z</time></trkpt><trkpt lat="40.08474892928148" lon="9.414207245800423"><ele>1302.0</ele><time>2026-04-29T12:33:58.001Z</time></trkpt><trkpt lat="40.08482974073935" lon="9.41424950573427"><ele>1302.0</ele><time>2026-04-29T12:33:59.001Z</time></trkpt><trkpt lat="40.084906482310814" lon="9.414290621106494"><ele>1302.0</ele><time>2026-04-29T12:34:00.001Z</time></trkpt><trkpt lat="40.08498346501367" lon="9.414332574489913"><ele>1302.0</ele><time>2026-04-29T12:34:01.001Z</time></trkpt><trkpt lat="40.08505621350076" lon="9.414372736675807"><ele>1302.0</ele><time>2026-04-29T12:34:02.001Z</time></trkpt><trkpt lat="40.085118302405306" lon="9.414415498201986"><ele>1301.3999999999999</ele><time>2026-04-29T12:34:03.001Z</time></trkpt><trkpt lat="40.08517291287851" lon="9.41449190696164"><ele>1300.8</ele><time>2026-04-29T12:34:05Z</time></trkpt><trkpt lat="40.08517388217857" lon="9.414585204500845"><ele>1300.2</ele><time>2026-04-29T12:34:07Z</time></trkpt><trkpt lat="40.08515662618858" lon="9.414717136500268"><ele>1299.6</ele><time>2026-04-29T12:34:09Z</time></trkpt><trkpt lat="40.08510172555061" lon="9.414834743715476"><ele>1299.0</ele><time>2026-04-29T12:34:11Z</time></trkpt><trkpt lat="40.08502059519596" lon="9.414924588642636"><ele>1300.2</ele><time>2026-04-29T12:34:13Z</time></trkpt><trkpt lat="40.084960068680985" lon="9.415041622625719"><ele>1301.4</ele><time>2026-04-29T12:34:15Z</time></trkpt><trkpt lat="40.08491248668687" lon="9.41512312253757"><ele>1302.6</ele><time>2026-04-29T12:34:17Z</time></trkpt><trkpt lat="40.084830594586386" lon="9.41510889914784"><ele>1303.8</ele><time>2026-04-29T12:34:20Z</time></trkpt><trkpt lat="40.08473505843997" lon="9.41501535779983"><ele>1305.0</ele><time>2026-04-29T12:34:22Z</time></trkpt><trkpt lat="40.08461846945572" lon="9.414963466240076"><ele>1305.8571428571427</ele><time>2026-04-29T12:34:24Z</time></trkpt><trkpt lat="40.08455534549699" lon="9.41495407433122"><ele>1306.7142857142858</ele><time>2026-04-29T12:34:25Z</time></trkpt><trkpt lat="40.08448274972972" lon="9.414935110517208"><ele>1307.5714285714284</ele><time>2026-04-29T12:34:26Z</time></trkpt><trkpt lat="40.08441276200472" lon="9.414909330139624"><ele>1308.4285714285713</ele><time>2026-04-29T12:34:27Z</time></trkpt><trkpt lat="40.084343219964566" lon="9.414883176868235"><ele>1309.2857142857142</ele><time>2026-04-29T12:34:28Z</time></trkpt><trkpt lat="40.08427778379904" lon="9.414857298874683"><ele>1310.142857142857</ele><time>2026-04-29T12:34:29Z</time></trkpt><trkpt lat="40.08419270090847" lon="9.4148829680763"><ele>1311.0</ele><time>2026-04-29T12:34:31Z</time></trkpt><trkpt lat="40.084130875483176" lon="9.414991865255665"><ele>1311.0</ele><time>2026-04-29T12:34:33Z</time></trkpt><trkpt lat="40.0841013570893" lon="9.415078179961833"><ele>1311.0</ele><time>2026-04-29T12:34:34Z</time></trkpt><trkpt lat="40.08408114984335" lon="9.415169225617127"><ele>1311.0</ele><time>2026-04-29T12:34:35Z</time></trkpt><trkpt lat="40.084061973425385" lon="9.41532402126629"><ele>1311.0</ele><time>2026-04-29T12:34:37Z</time></trkpt><trkpt lat="40.08401987701234" lon="9.4154988532848"><ele>1311.0</ele><time>2026-04-29T12:34:39Z</time></trkpt><trkpt lat="40.08400155627661" lon="9.415611391620379"><ele>1309.0</ele><time>2026-04-29T12:34:40Z</time></trkpt><trkpt lat="40.083989410822944" lon="9.41571149916132"><ele>1307.0</ele><time>2026-04-29T12:34:41Z</time></trkpt><trkpt lat="40.08398136030445" lon="9.415804433018405"><ele>1305.0</ele><time>2026-04-29T12:34:42Z</time></trkpt><trkpt lat="40.08398183666233" lon="9.4158967446058"><ele>1303.0</ele><time>2026-04-29T12:34:43Z</time></trkpt><trkpt lat="40.083997839638926" lon="9.41600312100247"><ele>1301.0</ele><time>2026-04-29T12:34:44Z</time></trkpt><trkpt lat="40.084029723822134" lon="9.416109497671917"><ele>1299.0</ele><time>2026-04-29T12:34:45Z</time></trkpt><trkpt lat="40.08406251646483" lon="9.41622123814286"><ele>1300.2</ele><time>2026-04-29T12:34:46Z</time></trkpt><trkpt lat="40.08410987170206" lon="9.41634275588875"><ele>1301.4</ele><time>2026-04-29T12:34:47Z</time></trkpt><trkpt lat="40.0841639726882" lon="9.416451296856017"><ele>1302.6</ele><time>2026-04-29T12:34:48Z</time></trkpt><trkpt lat="40.084221437641894" lon="9.416538931478282"><ele>1303.8</ele><time>2026-04-29T12:34:49Z</time></trkpt><trkpt lat="40.084276202757906" lon="9.416626365384138"><ele>1305.0</ele><time>2026-04-29T12:34:50Z</time></trkpt><trkpt lat="40.08432079393806" lon="9.416716892817309"><ele>1305.0</ele><time>2026-04-29T12:34:51Z</time></trkpt><trkpt lat="40.08436177178165" lon="9.416804558356045"><ele>1305.0</ele><time>2026-04-29T12:34:52Z</time></trkpt><trkpt lat="40.08440636441527" lon="9.416899770421992"><ele>1305.0</ele><time>2026-04-29T12:34:53Z</time></trkpt><trkpt lat="40.08444970995387" lon="9.416998632180546"><ele>1305.0</ele><time>2026-04-29T12:34:54Z</time></trkpt><trkpt lat="40.08447483845344" lon="9.41708358262171"><ele>1305.0</ele><time>2026-04-29T12:34:55Z</time></trkpt><trkpt lat="40.08448945296454" lon="9.417195004730187"><ele>1305.0</ele><time>2026-04-29T12:34:56Z</time></trkpt><trkpt lat="40.08450205183802" lon="9.417307536569744"><ele>1305.4285714285713</ele><time>2026-04-29T12:34:57Z</time></trkpt><trkpt lat="40.08449865569804" lon="9.417410106089605"><ele>1305.857142857143</ele><time>2026-04-29T12:34:58Z</time></trkpt><trkpt lat="40.08448065867872" lon="9.41749416156368"><ele>1306.2857142857142</ele><time>2026-04-29T12:34:59Z</time></trkpt><trkpt lat="40.08444645529525" lon="9.417566890015914"><ele>1306.7142857142858</ele><time>2026-04-29T12:35:00.001Z</time></trkpt><trkpt lat="40.084408839126425" lon="9.417641499502887"><ele>1307.142857142857</ele><time>2026-04-29T12:35:01.001Z</time></trkpt><trkpt lat="40.08436681839787" lon="9.417709432111762"><ele>1307.5714285714284</ele><time>2026-04-29T12:35:02.001Z</time></trkpt><trkpt lat="40.08431818496692" lon="9.417783786984145"><ele>1308.0</ele><time>2026-04-29T12:35:03.001Z</time></trkpt><trkpt lat="40.084278100319665" lon="9.417859905385516"><ele>1308.0</ele><time>2026-04-29T12:35:04.001Z</time></trkpt><trkpt lat="40.08422432724317" lon="9.41795185854623"><ele>1308.0</ele><time>2026-04-29T12:35:05.001Z</time></trkpt><trkpt lat="40.08417609558966" lon="9.418039229020225"><ele>1308.0</ele><time>2026-04-29T12:35:06.001Z</time></trkpt><trkpt lat="40.08413898921973" lon="9.418139764718866"><ele>1308.0</ele><time>2026-04-29T12:35:07.001Z</time></trkpt><trkpt lat="40.08411217765994" lon="9.418248060703561"><ele>1308.0</ele><time>2026-04-29T12:35:08.001Z</time></trkpt><trkpt lat="40.08409818067049" lon="9.418368636398329"><ele>1308.0</ele><time>2026-04-29T12:35:09.001Z</time></trkpt><trkpt lat="40.084090117182825" lon="9.418497148343643"><ele>1307.6000000000001</ele><time>2026-04-29T12:35:10.001Z</time></trkpt><trkpt lat="40.08407612997425" lon="9.418633869026518"><ele>1307.2</ele><time>2026-04-29T12:35:11.001Z</time></trkpt><trkpt lat="40.08406135971577" lon="9.418772854415478"><ele>1306.8</ele><time>2026-04-29T12:35:12.001Z</time></trkpt><trkpt lat="40.08404384233263" lon="9.4189117699363"><ele>1306.4</ele><time>2026-04-29T12:35:13.001Z</time></trkpt><trkpt lat="40.08402320819685" lon="9.419038164842677"><ele>1306.0</ele><time>2026-04-29T12:35:14.001Z</time></trkpt><trkpt lat="40.08403552051159" lon="9.419162142828085"><ele>1306.0</ele><time>2026-04-29T12:35:15.001Z</time></trkpt><trkpt lat="40.08405076134387" lon="9.419283999303632"><ele>1306.0</ele><time>2026-04-29T12:35:16.001Z</time></trkpt><trkpt lat="40.084063459608714" lon="9.4194126305418"><ele>1306.0</ele><time>2026-04-29T12:35:17.001Z</time></trkpt><trkpt lat="40.08405267273489" lon="9.419537526266264"><ele>1306.0</ele><time>2026-04-29T12:35:18.001Z</time></trkpt><trkpt lat="40.084032268640435" lon="9.419658320171798"><ele>1306.0</ele><time>2026-04-29T12:35:19.001Z</time></trkpt><trkpt lat="40.084027796172975" lon="9.419782393735966"><ele>1307.1666666666665</ele><time>2026-04-29T12:35:20.001Z</time></trkpt><trkpt lat="40.08402476795809" lon="9.419879390054136"><ele>1308.3333333333333</ele><time>2026-04-29T12:35:21.001Z</time></trkpt><trkpt lat="40.084028155463606" lon="9.419976208670988"><ele>1309.5</ele><time>2026-04-29T12:35:22.001Z</time></trkpt><trkpt lat="40.084040122069894" lon="9.420061002441333"><ele>1310.6666666666667</ele><time>2026-04-29T12:35:23.001Z</time></trkpt><trkpt lat="40.08402318672358" lon="9.420163065221645"><ele>1311.8333333333335</ele><time>2026-04-29T12:35:25.001Z</time></trkpt><trkpt lat="40.08395985873916" lon="9.420233843308083"><ele>1313.0</ele><time>2026-04-29T12:35:27.001Z</time></trkpt><trkpt lat="40.08386169185189" lon="9.420277617513175"><ele>1313.0</ele><time>2026-04-29T12:35:29.001Z</time></trkpt><trkpt lat="40.08376033060879" lon="9.420375407173173"><ele>1313.0</ele><time>2026-04-29T12:35:31.001Z</time></trkpt><trkpt lat="40.083706553717334" lon="9.42043665842922"><ele>1313.0</ele><time>2026-04-29T12:35:32.001Z</time></trkpt><trkpt lat="40.083651857827626" lon="9.420514734111386"><ele>1313.0</ele><time>2026-04-29T12:35:33.001Z</time></trkpt><trkpt lat="40.083602185440164" lon="9.420593300326844"><ele>1313.0</ele><time>2026-04-29T12:35:34.001Z</time></trkpt><trkpt lat="40.08356246136158" lon="9.42067214276092"><ele>1313.0</ele><time>2026-04-29T12:35:35.001Z</time></trkpt><trkpt lat="40.08354060528026" lon="9.420751717804423"><ele>1313.0</ele><time>2026-04-29T12:35:36.001Z</time></trkpt><trkpt lat="40.08353456169422" lon="9.42084075550582"><ele>1313.0</ele><time>2026-04-29T12:35:37.001Z</time></trkpt><trkpt lat="40.083513643456364" lon="9.42100000481228"><ele>1313.0</ele><time>2026-04-29T12:35:39.001Z</time></trkpt><trkpt lat="40.08348473308812" lon="9.421085025167066"><ele>1313.0</ele><time>2026-04-29T12:35:40.001Z</time></trkpt><trkpt lat="40.08345134595297" lon="9.42117381326018"><ele>1313.0</ele><time>2026-04-29T12:35:41.001Z</time></trkpt><trkpt lat="40.083422079006255" lon="9.421260265182486"><ele>1313.0</ele><time>2026-04-29T12:35:42.001Z</time></trkpt><trkpt lat="40.08340027614218" lon="9.42134864278375"><ele>1312.6666666666667</ele><time>2026-04-29T12:35:43.001Z</time></trkpt><trkpt lat="40.083393753306325" lon="9.42144260110449"><ele>1312.3333333333335</ele><time>2026-04-29T12:35:44.001Z</time></trkpt><trkpt lat="40.08337709674531" lon="9.421609426789006"><ele>1312.0</ele><time>2026-04-29T12:35:46.001Z</time></trkpt><trkpt lat="40.0833619484254" lon="9.421693971594943"><ele>1311.6666666666667</ele><time>2026-04-29T12:35:47.001Z</time></trkpt><trkpt lat="40.08334713453737" lon="9.421775496292703"><ele>1311.3333333333333</ele><time>2026-04-29T12:35:48.001Z</time></trkpt><trkpt lat="40.08332937955045" lon="9.421859370529585"><ele>1311.0</ele><time>2026-04-29T12:35:49.001Z</time></trkpt><trkpt lat="40.08331863750737" lon="9.421942271972844"><ele>1311.0</ele><time>2026-04-29T12:35:50.001Z</time></trkpt><trkpt lat="40.08330983867885" lon="9.422024250623869"><ele>1311.0</ele><time>2026-04-29T12:35:51.001Z</time></trkpt><trkpt lat="40.083297329446204" lon="9.422105281414158"><ele>1311.0</ele><time>2026-04-29T12:35:52.001Z</time></trkpt><trkpt lat="40.08325108783089" lon="9.422258438000643"><ele>1311.0</ele><time>2026-04-29T12:35:54.001Z</time></trkpt><trkpt lat="40.083215872330605" lon="9.422328254882657"><ele>1311.0</ele><time>2026-04-29T12:35:55.001Z</time></trkpt><trkpt lat="40.083183849904295" lon="9.42240347447284"><ele>1311.0</ele><time>2026-04-29T12:35:56.001Z</time></trkpt><trkpt lat="40.083167017754455" lon="9.42253888790677"><ele>1310.1666666666667</ele><time>2026-04-29T12:35:58.001Z</time></trkpt><trkpt lat="40.08318642544734" lon="9.422647421320454"><ele>1309.3333333333333</ele><time>2026-04-29T12:36:00.001Z</time></trkpt><trkpt lat="40.083210548122466" lon="9.422744961875926"><ele>1308.5</ele><time>2026-04-29T12:36:02.001Z</time></trkpt><trkpt lat="40.083233915204104" lon="9.422852686788183"><ele>1307.6666666666665</ele><time>2026-04-29T12:36:04.001Z</time></trkpt><trkpt lat="40.08326483602126" lon="9.422977866144443"><ele>1306.8333333333333</ele><time>2026-04-29T12:36:06.001Z</time></trkpt><trkpt lat="40.0832965051543" lon="9.423090635899428"><ele>1306.0</ele><time>2026-04-29T12:36:08.001Z</time></trkpt><trkpt lat="40.08333033033758" lon="9.423210925398438"><ele>1304.1999999999998</ele><time>2026-04-29T12:36:10Z</time></trkpt><trkpt lat="40.08336574512421" lon="9.423330954323877"><ele>1302.3999999999999</ele><time>2026-04-29T12:36:12Z</time></trkpt><trkpt lat="40.08339731436595" lon="9.423439303088955"><ele>1300.6</ele><time>2026-04-29T12:36:14Z</time></trkpt><trkpt lat="40.083432262005076" lon="9.423544434586894"><ele>1298.8</ele><time>2026-04-29T12:36:16Z</time></trkpt><trkpt lat="40.0834650234949" lon="9.423666253555373"><ele>1297.0</ele><time>2026-04-29T12:36:18Z</time></trkpt><trkpt lat="40.083498528812385" lon="9.423777620826646"><ele>1295.0</ele><time>2026-04-29T12:36:20Z</time></trkpt><trkpt lat="40.08353229723072" lon="9.42388800821518"><ele>1293.0</ele><time>2026-04-29T12:36:22Z</time></trkpt><trkpt lat="40.08356274691913" lon="9.42398748799644"><ele>1291.0</ele><time>2026-04-29T12:36:24Z</time></trkpt><trkpt lat="40.08358892488883" lon="9.424101021981228"><ele>1289.0</ele><time>2026-04-29T12:36:26Z</time></trkpt><trkpt lat="40.08361634347634" lon="9.424204367926"><ele>1287.0</ele><time>2026-04-29T12:36:28Z</time></trkpt><trkpt lat="40.08364763057482" lon="9.424322477672678"><ele>1285.0</ele><time>2026-04-29T12:36:30Z</time></trkpt><trkpt lat="40.08368622435427" lon="9.42445700281054"><ele>1285.0</ele><time>2026-04-29T12:36:32Z</time></trkpt><trkpt lat="40.083709538751606" lon="9.424534494255306"><ele>1285.0</ele><time>2026-04-29T12:36:33Z</time></trkpt><trkpt lat="40.083758108653896" lon="9.424674430840886"><ele>1285.0</ele><time>2026-04-29T12:36:35Z</time></trkpt><trkpt lat="40.08379425468668" lon="9.42480889821187"><ele>1285.0</ele><time>2026-04-29T12:36:37Z</time></trkpt><trkpt lat="40.08382748559155" lon="9.424940551091836"><ele>1285.0</ele><time>2026-04-29T12:36:39Z</time></trkpt><trkpt lat="40.08386229605936" lon="9.425083520875104"><ele>1281.6</ele><time>2026-04-29T12:36:41Z</time></trkpt><trkpt lat="40.08390009220566" lon="9.425219475768282"><ele>1278.2</ele><time>2026-04-29T12:36:43Z</time></trkpt><trkpt lat="40.08393952752335" lon="9.425354725306237"><ele>1274.8</ele><time>2026-04-29T12:36:45Z</time></trkpt><trkpt lat="40.083978480229995" lon="9.425485396824028"><ele>1271.4</ele><time>2026-04-29T12:36:47Z</time></trkpt><trkpt lat="40.08402038677341" lon="9.42561678209468"><ele>1268.0</ele><time>2026-04-29T12:36:49Z</time></trkpt><trkpt lat="40.0840465146172" lon="9.425750245779493"><ele>1264.2</ele><time>2026-04-29T12:36:51Z</time></trkpt><trkpt lat="40.08404763728749" lon="9.425879757175291"><ele>1260.4</ele><time>2026-04-29T12:36:53Z</time></trkpt><trkpt lat="40.08404643602164" lon="9.426022965753413"><ele>1256.6000000000001</ele><time>2026-04-29T12:36:55Z</time></trkpt><trkpt lat="40.08404994825164" lon="9.426157366531758"><ele>1252.8</ele><time>2026-04-29T12:36:57Z</time></trkpt><trkpt lat="40.084062929465794" lon="9.42626830740566"><ele>1249.0</ele><time>2026-04-29T12:36:59Z</time></trkpt><trkpt lat="40.084077909003504" lon="9.426395371533696"><ele>1248.3333333333333</ele><time>2026-04-29T12:37:01Z</time></trkpt><trkpt lat="40.08408720711045" lon="9.426522720065243"><ele>1247.6666666666665</ele><time>2026-04-29T12:37:03Z</time></trkpt><trkpt lat="40.08409377026876" lon="9.4266205691099"><ele>1247.0</ele><time>2026-04-29T12:37:05Z</time></trkpt><trkpt lat="40.08412162872434" lon="9.426721606860465"><ele>1246.3333333333333</ele><time>2026-04-29T12:37:08Z</time></trkpt><trkpt lat="40.08420962416689" lon="9.42677295464657"><ele>1245.6666666666667</ele><time>2026-04-29T12:37:11Z</time></trkpt><trkpt lat="40.084296552756975" lon="9.42676683899397"><ele>1245.0</ele><time>2026-04-29T12:37:13Z</time></trkpt><trkpt lat="40.08440167229523" lon="9.426771227862456"><ele>1245.0</ele><time>2026-04-29T12:37:15Z</time></trkpt><trkpt lat="40.08450487536559" lon="9.426779458422676"><ele>1245.0</ele><time>2026-04-29T12:37:17Z</time></trkpt><trkpt lat="40.08461248969286" lon="9.426795646143722"><ele>1245.0</ele><time>2026-04-29T12:37:19Z</time></trkpt><trkpt lat="40.08473041117265" lon="9.426828909819227"><ele>1245.0</ele><time>2026-04-29T12:37:21Z</time></trkpt><trkpt lat="40.08479490674507" lon="9.426855752488487"><ele>1245.0</ele><time>2026-04-29T12:37:22Z</time></trkpt><trkpt lat="40.08486007414506" lon="9.426886974494373"><ele>1245.0</ele><time>2026-04-29T12:37:23Z</time></trkpt><trkpt lat="40.08492660231133" lon="9.426917518646144"><ele>1245.0</ele><time>2026-04-29T12:37:24Z</time></trkpt><trkpt lat="40.084989628758166" lon="9.426946963706405"><ele>1245.0</ele><time>2026-04-29T12:37:25Z</time></trkpt><trkpt lat="40.08505136969403" lon="9.426975173220379"><ele>1245.0</ele><time>2026-04-29T12:37:26Z</time></trkpt><trkpt lat="40.085111757244334" lon="9.427005761098892"><ele>1245.0</ele><time>2026-04-29T12:37:27Z</time></trkpt><trkpt lat="40.085171856615425" lon="9.427038284117252"><ele>1245.0</ele><time>2026-04-29T12:37:28Z</time></trkpt><trkpt lat="40.08523261122859" lon="9.427065711455363"><ele>1245.0</ele><time>2026-04-29T12:37:29Z</time></trkpt><trkpt lat="40.08529436911592" lon="9.427082852784531"><ele>1242.5</ele><time>2026-04-29T12:37:30Z</time></trkpt><trkpt lat="40.08539901980496" lon="9.42711611837452"><ele>1240.0</ele><time>2026-04-29T12:37:32Z</time></trkpt><trkpt lat="40.085449972654814" lon="9.427177775012268"><ele>1237.5</ele><time>2026-04-29T12:37:34.001Z</time></trkpt><trkpt lat="40.0854229138467" lon="9.427254375621176"><ele>1235.0</ele><time>2026-04-29T12:37:36.001Z</time></trkpt><trkpt lat="40.08536955895607" lon="9.427340374441801"><ele>1232.5</ele><time>2026-04-29T12:37:38.001Z</time></trkpt><trkpt lat="40.085294001325494" lon="9.42742132705326"><ele>1230.0</ele><time>2026-04-29T12:37:40.001Z</time></trkpt><trkpt lat="40.085203130204874" lon="9.427495418336"><ele>1229.8</ele><time>2026-04-29T12:37:42.001Z</time></trkpt><trkpt lat="40.08510826603719" lon="9.42756555907952"><ele>1229.6</ele><time>2026-04-29T12:37:44.001Z</time></trkpt><trkpt lat="40.08501629166401" lon="9.427656802743305"><ele>1229.4</ele><time>2026-04-29T12:37:46.001Z</time></trkpt><trkpt lat="40.08492332108564" lon="9.427734244668816"><ele>1229.2</ele><time>2026-04-29T12:37:48.001Z</time></trkpt><trkpt lat="40.08483203838626" lon="9.427813503269055"><ele>1229.0</ele><time>2026-04-29T12:37:50.001Z</time></trkpt><trkpt lat="40.084731024986205" lon="9.427887675009961"><ele>1229.0</ele><time>2026-04-29T12:37:52.001Z</time></trkpt><trkpt lat="40.08462827379567" lon="9.427963213149278"><ele>1229.0</ele><time>2026-04-29T12:37:54.001Z</time></trkpt><trkpt lat="40.08453995089101" lon="9.428075168489023"><ele>1229.0</ele><time>2026-04-29T12:37:56.001Z</time></trkpt><trkpt lat="40.08446742736303" lon="9.428203774851923"><ele>1229.0</ele><time>2026-04-29T12:37:58.001Z</time></trkpt><trkpt lat="40.08440710651348" lon="9.42833543145371"><ele>1225.6000000000001</ele><time>2026-04-29T12:38:00.001Z</time></trkpt><trkpt lat="40.084355339360485" lon="9.42847438801647"><ele>1222.2</ele><time>2026-04-29T12:38:02.001Z</time></trkpt><trkpt lat="40.08430893024932" lon="9.428625345356236"><ele>1218.8000000000002</ele><time>2026-04-29T12:38:04.001Z</time></trkpt><trkpt lat="40.084281979466525" lon="9.42870060386719"><ele>1215.4</ele><time>2026-04-29T12:38:05.001Z</time></trkpt><trkpt lat="40.08424647051274" lon="9.428838025508526"><ele>1212.0</ele><time>2026-04-29T12:38:07.001Z</time></trkpt><trkpt lat="40.08425536076661" lon="9.428998016153407"><ele>1208.75</ele><time>2026-04-29T12:38:09.001Z</time></trkpt><trkpt lat="40.08427017124071" lon="9.429158678113225"><ele>1205.5</ele><time>2026-04-29T12:38:11.001Z</time></trkpt><trkpt lat="40.084280909526974" lon="9.429311142549983"><ele>1202.25</ele><time>2026-04-29T12:38:13.001Z</time></trkpt><trkpt lat="40.08428174650446" lon="9.429471722624202"><ele>1199.0</ele><time>2026-04-29T12:38:15.001Z</time></trkpt><trkpt lat="40.08428697077392" lon="9.429637383113546"><ele>1197.2</ele><time>2026-04-29T12:38:17Z</time></trkpt><trkpt lat="40.08429119457099" lon="9.429720263277824"><ele>1195.4</ele><time>2026-04-29T12:38:18Z</time></trkpt><trkpt lat="40.08430347760151" lon="9.429803312898033"><ele>1193.6</ele><time>2026-04-29T12:38:19Z</time></trkpt><trkpt lat="40.084317502349286" lon="9.429940126032243"><ele>1191.8</ele><time>2026-04-29T12:38:21Z</time></trkpt><trkpt lat="40.08431497467587" lon="9.43008074759937"><ele>1190.0</ele><time>2026-04-29T12:38:23Z</time></trkpt><trkpt lat="40.08431914486616" lon="9.430231129592471"><ele>1190.0</ele><time>2026-04-29T12:38:25Z</time></trkpt><trkpt lat="40.084325651195186" lon="9.430385891857767"><ele>1190.0</ele><time>2026-04-29T12:38:27Z</time></trkpt><trkpt lat="40.08433332621314" lon="9.430526950658864"><ele>1190.0</ele><time>2026-04-29T12:38:29Z</time></trkpt><trkpt lat="40.08436019627227" lon="9.430631777454574"><ele>1190.0</ele><time>2026-04-29T12:38:31Z</time></trkpt><trkpt lat="40.0844263118518" lon="9.430704002952192"><ele>1190.0</ele><time>2026-04-29T12:38:34Z</time></trkpt><trkpt lat="40.08450725089919" lon="9.430674239582888"><ele>1190.0</ele><time>2026-04-29T12:38:37Z</time></trkpt><trkpt lat="40.08456804515801" lon="9.430573351121462"><ele>1190.0</ele><time>2026-04-29T12:38:39Z</time></trkpt><trkpt lat="40.084653047272965" lon="9.430445020912053"><ele>1190.0</ele><time>2026-04-29T12:38:41Z</time></trkpt><trkpt lat="40.08469124674187" lon="9.430366658784633"><ele>1190.0</ele><time>2026-04-29T12:38:42Z</time></trkpt><trkpt lat="40.0847237671002" lon="9.430290519039245"><ele>1190.0</ele><time>2026-04-29T12:38:43Z</time></trkpt><trkpt lat="40.08475832151238" lon="9.430204575554056"><ele>1190.0</ele><time>2026-04-29T12:38:44Z</time></trkpt><trkpt lat="40.08479080876914" lon="9.430108850304375"><ele>1190.0</ele><time>2026-04-29T12:38:45Z</time></trkpt><trkpt lat="40.084826096628994" lon="9.430006745318375"><ele>1190.0</ele><time>2026-04-29T12:38:46Z</time></trkpt><trkpt lat="40.08486433281011" lon="9.429903105491848"><ele>1190.0</ele><time>2026-04-29T12:38:47Z</time></trkpt><trkpt lat="40.084900625334825" lon="9.429807739350178"><ele>1190.0</ele><time>2026-04-29T12:38:48Z</time></trkpt><trkpt lat="40.08493386358118" lon="9.429710387044532"><ele>1190.0</ele><time>2026-04-29T12:38:49Z</time></trkpt><trkpt lat="40.08496135544242" lon="9.429614673345492"><ele>1190.0</ele><time>2026-04-29T12:38:50Z</time></trkpt><trkpt lat="40.08498332979301" lon="9.429529080856133"><ele>1189.8333333333335</ele><time>2026-04-29T12:38:51Z</time></trkpt><trkpt lat="40.08500027168102" lon="9.429449195116359"><ele>1189.6666666666667</ele><time>2026-04-29T12:38:52Z</time></trkpt><trkpt lat="40.08505800426601" lon="9.429355902947496"><ele>1189.5</ele><time>2026-04-29T12:38:54Z</time></trkpt><trkpt lat="40.08514612417376" lon="9.429350815963561"><ele>1189.3333333333333</ele><time>2026-04-29T12:38:56Z</time></trkpt><trkpt lat="40.08520947783189" lon="9.429393239081563"><ele>1189.1666666666665</ele><time>2026-04-29T12:38:57Z</time></trkpt><trkpt lat="40.08527281492707" lon="9.429453439471542"><ele>1189.0</ele><time>2026-04-29T12:38:58Z</time></trkpt><trkpt lat="40.08534572179879" lon="9.429505340462148"><ele>1189.0</ele><time>2026-04-29T12:38:59Z</time></trkpt><trkpt lat="40.08542971279221" lon="9.429562174753046"><ele>1189.0</ele><time>2026-04-29T12:39:00Z</time></trkpt><trkpt lat="40.08551660841191" lon="9.429623337637558"><ele>1189.0</ele><time>2026-04-29T12:39:01Z</time></trkpt><trkpt lat="40.085602116476586" lon="9.429691961219444"><ele>1189.0</ele><time>2026-04-29T12:39:02Z</time></trkpt><trkpt lat="40.08567768368274" lon="9.429758353054405"><ele>1189.0</ele><time>2026-04-29T12:39:03Z</time></trkpt><trkpt lat="40.08575176193411" lon="9.429824494137476"><ele>1186.6666666666665</ele><time>2026-04-29T12:39:04Z</time></trkpt><trkpt lat="40.08582257859931" lon="9.429886479294655"><ele>1184.3333333333333</ele><time>2026-04-29T12:39:05Z</time></trkpt><trkpt lat="40.085887987361005" lon="9.42994406821107"><ele>1182.0</ele><time>2026-04-29T12:39:06Z</time></trkpt><trkpt lat="40.08596747176997" lon="9.43006411207585"><ele>1179.6666666666667</ele><time>2026-04-29T12:39:08Z</time></trkpt><trkpt lat="40.08600044868873" lon="9.430153875762535"><ele>1177.3333333333335</ele><time>2026-04-29T12:39:09Z</time></trkpt><trkpt lat="40.086036662857744" lon="9.430254839389228"><ele>1175.0</ele><time>2026-04-29T12:39:10Z</time></trkpt><trkpt lat="40.08607695727786" lon="9.430358650919533"><ele>1175.0</ele><time>2026-04-29T12:39:11Z</time></trkpt><trkpt lat="40.08612010676155" lon="9.430452569744107"><ele>1175.0</ele><time>2026-04-29T12:39:12Z</time></trkpt><trkpt lat="40.08616159305737" lon="9.430531651244642"><ele>1175.0</ele><time>2026-04-29T12:39:13.001Z</time></trkpt><trkpt lat="40.08620735019507" lon="9.430608348147985"><ele>1175.0</ele><time>2026-04-29T12:39:14.001Z</time></trkpt><trkpt lat="40.086259346648816" lon="9.430676824967023"><ele>1175.0</ele><time>2026-04-29T12:39:15.001Z</time></trkpt><trkpt lat="40.08635292739353" lon="9.430743453592616"><ele>1175.0</ele><time>2026-04-29T12:39:17.001Z</time></trkpt><trkpt lat="40.08646690418083" lon="9.430727543322034"><ele>1174.0</ele><time>2026-04-29T12:39:19.001Z</time></trkpt><trkpt lat="40.08652945258286" lon="9.430692399498323"><ele>1173.0</ele><time>2026-04-29T12:39:20.001Z</time></trkpt><trkpt lat="40.08659091768346" lon="9.43064353419414"><ele>1172.0</ele><time>2026-04-29T12:39:21.001Z</time></trkpt><trkpt lat="40.0866473842949" lon="9.43058359571239"><ele>1171.0</ele><time>2026-04-29T12:39:22.001Z</time></trkpt><trkpt lat="40.08669326722823" lon="9.43051872595769"><ele>1170.0</ele><time>2026-04-29T12:39:23.001Z</time></trkpt><trkpt lat="40.08674016755465" lon="9.430443885374816"><ele>1169.0</ele><time>2026-04-29T12:39:24.001Z</time></trkpt><trkpt lat="40.08678666518092" lon="9.430358292221367"><ele>1168.0</ele><time>2026-04-29T12:39:25.001Z</time></trkpt><trkpt lat="40.086831983332544" lon="9.430266942314173"><ele>1168.0</ele><time>2026-04-29T12:39:26.001Z</time></trkpt><trkpt lat="40.08687997226184" lon="9.430167369870178"><ele>1168.0</ele><time>2026-04-29T12:39:27.001Z</time></trkpt><trkpt lat="40.08692108986862" lon="9.430072220308027"><ele>1168.0</ele><time>2026-04-29T12:39:28.001Z</time></trkpt><trkpt lat="40.08695300549874" lon="9.429979464382637"><ele>1168.0</ele><time>2026-04-29T12:39:29.001Z</time></trkpt><trkpt lat="40.08697761664634" lon="9.429886676622173"><ele>1168.0</ele><time>2026-04-29T12:39:30.001Z</time></trkpt><trkpt lat="40.08699388595714" lon="9.429786455461796"><ele>1168.0</ele><time>2026-04-29T12:39:31.001Z</time></trkpt><trkpt lat="40.08701095909497" lon="9.429683583486975"><ele>1169.0</ele><time>2026-04-29T12:39:32.001Z</time></trkpt><trkpt lat="40.08703291350642" lon="9.429573053321494"><ele>1170.0</ele><time>2026-04-29T12:39:33.001Z</time></trkpt><trkpt lat="40.08705359199266" lon="9.429450141959252"><ele>1171.0</ele><time>2026-04-29T12:39:34.001Z</time></trkpt><trkpt lat="40.0870699748307" lon="9.429318321474252"><ele>1172.0</ele><time>2026-04-29T12:39:35.001Z</time></trkpt><trkpt lat="40.08708740067005" lon="9.42918950443564"><ele>1173.0</ele><time>2026-04-29T12:39:36.001Z</time></trkpt><trkpt lat="40.08710782044488" lon="9.429070860515377"><ele>1173.0</ele><time>2026-04-29T12:39:37.001Z</time></trkpt><trkpt lat="40.08714076303368" lon="9.428959864332208"><ele>1173.0</ele><time>2026-04-29T12:39:38.001Z</time></trkpt><trkpt lat="40.08718512338769" lon="9.428841118831409"><ele>1173.0</ele><time>2026-04-29T12:39:39.001Z</time></trkpt><trkpt lat="40.08722660680653" lon="9.428718897055532"><ele>1173.0</ele><time>2026-04-29T12:39:40.001Z</time></trkpt><trkpt lat="40.08726313094266" lon="9.428598457410452"><ele>1173.0</ele><time>2026-04-29T12:39:41.001Z</time></trkpt><trkpt lat="40.08729985446922" lon="9.428487814208719"><ele>1174.3333333333333</ele><time>2026-04-29T12:39:42.001Z</time></trkpt><trkpt lat="40.08734967180803" lon="9.428391431982165"><ele>1175.6666666666667</ele><time>2026-04-29T12:39:43.001Z</time></trkpt><trkpt lat="40.08740710550726" lon="9.428301855050245"><ele>1177.0</ele><time>2026-04-29T12:39:44.001Z</time></trkpt><trkpt lat="40.087465004163285" lon="9.428206214700321"><ele>1178.3333333333335</ele><time>2026-04-29T12:39:45.001Z</time></trkpt><trkpt lat="40.08751445783718" lon="9.428115367093703"><ele>1179.6666666666667</ele><time>2026-04-29T12:39:46.001Z</time></trkpt><trkpt lat="40.087559833544425" lon="9.428017029232894"><ele>1181.0</ele><time>2026-04-29T12:39:47.001Z</time></trkpt><trkpt lat="40.087598139983015" lon="9.427909507081335"><ele>1176.8333333333335</ele><time>2026-04-29T12:39:48.001Z</time></trkpt><trkpt lat="40.08763920757984" lon="9.42780051880352"><ele>1172.6666666666667</ele><time>2026-04-29T12:39:49.001Z</time></trkpt><trkpt lat="40.08768258198493" lon="9.427698657004173"><ele>1168.5</ele><time>2026-04-29T12:39:50.001Z</time></trkpt><trkpt lat="40.08772924287309" lon="9.427599614875525"><ele>1164.3333333333333</ele><time>2026-04-29T12:39:51.001Z</time></trkpt><trkpt lat="40.08777623842264" lon="9.427509388520438"><ele>1160.1666666666665</ele><time>2026-04-29T12:39:52.001Z</time></trkpt><trkpt lat="40.08781216903969" lon="9.427426761450791"><ele>1156.0</ele><time>2026-04-29T12:39:53.001Z</time></trkpt><trkpt lat="40.08786359806209" lon="9.42728959732403"><ele>1156.0</ele><time>2026-04-29T12:39:55.001Z</time></trkpt><trkpt lat="40.08792607186601" lon="9.427230497375136"><ele>1156.0</ele><time>2026-04-29T12:39:58.001Z</time></trkpt><trkpt lat="40.08798967540646" lon="9.42725357538715"><ele>1156.0</ele><time>2026-04-29T12:40:00.001Z</time></trkpt><trkpt lat="40.088019184652936" lon="9.42735063490412"><ele>1156.0</ele><time>2026-04-29T12:40:01.001Z</time></trkpt><trkpt lat="40.0880667782073" lon="9.427443049155533"><ele>1156.0</ele><time>2026-04-29T12:40:02.001Z</time></trkpt><trkpt lat="40.08810941919656" lon="9.427527122921399"><ele>1156.0</ele><time>2026-04-29T12:40:03.001Z</time></trkpt><trkpt lat="40.08813042172168" lon="9.427699704693525"><ele>1156.0</ele><time>2026-04-29T12:40:05.001Z</time></trkpt><trkpt lat="40.088121416698435" lon="9.42781396576614"><ele>1156.0</ele><time>2026-04-29T12:40:06.001Z</time></trkpt><trkpt lat="40.08812300791089" lon="9.42791702380848"><ele>1156.0</ele><time>2026-04-29T12:40:07.001Z</time></trkpt><trkpt lat="40.0881290379091" lon="9.428013048979205"><ele>1156.0</ele><time>2026-04-29T12:40:08.001Z</time></trkpt><trkpt lat="40.08814289359836" lon="9.428109379059952"><ele>1156.0</ele><time>2026-04-29T12:40:09.001Z</time></trkpt><trkpt lat="40.08817128608002" lon="9.428212269800873"><ele>1156.0</ele><time>2026-04-29T12:40:10.001Z</time></trkpt><trkpt lat="40.08820182672206" lon="9.428311395525943"><ele>1154.5</ele><time>2026-04-29T12:40:11.001Z</time></trkpt><trkpt lat="40.088226740651336" lon="9.428409351999273"><ele>1153.0</ele><time>2026-04-29T12:40:12.001Z</time></trkpt><trkpt lat="40.08825887199797" lon="9.428512004155985"><ele>1151.5</ele><time>2026-04-29T12:40:13.001Z</time></trkpt><trkpt lat="40.088295345579304" lon="9.428612113456214"><ele>1150.0</ele><time>2026-04-29T12:40:14.001Z</time></trkpt><trkpt lat="40.08833383523626" lon="9.428715873608493"><ele>1148.5</ele><time>2026-04-29T12:40:15.001Z</time></trkpt><trkpt lat="40.08837143803594" lon="9.42881499082972"><ele>1147.0</ele><time>2026-04-29T12:40:16.001Z</time></trkpt><trkpt lat="40.088409693750556" lon="9.428921791177528"><ele>1144.6666666666665</ele><time>2026-04-29T12:40:17.001Z</time></trkpt><trkpt lat="40.0884442488508" lon="9.429025015579164"><ele>1142.3333333333333</ele><time>2026-04-29T12:40:18.001Z</time></trkpt><trkpt lat="40.088471422488546" lon="9.429124894129494"><ele>1140.0</ele><time>2026-04-29T12:40:19.001Z</time></trkpt><trkpt lat="40.08849956299904" lon="9.429217096508026"><ele>1137.6666666666667</ele><time>2026-04-29T12:40:20.001Z</time></trkpt><trkpt lat="40.08851850351598" lon="9.429308211018451"><ele>1135.3333333333335</ele><time>2026-04-29T12:40:21.001Z</time></trkpt><trkpt lat="40.08854329370422" lon="9.42940266332844"><ele>1133.0</ele><time>2026-04-29T12:40:22Z</time></trkpt><trkpt lat="40.088574055446216" lon="9.429518890557816"><ele>1133.0</ele><time>2026-04-29T12:40:24Z</time></trkpt><trkpt lat="40.08860245976379" lon="9.429637499204162"><ele>1133.0</ele><time>2026-04-29T12:40:50Z</time></trkpt><trkpt lat="40.08866167059373" lon="9.429788729095948"><ele>1133.0</ele><time>2026-04-29T12:40:52Z</time></trkpt><trkpt lat="40.08869190688706" lon="9.429889429324477"><ele>1133.0</ele><time>2026-04-29T12:40:53Z</time></trkpt><trkpt lat="40.0887234533749" lon="9.429995383949194"><ele>1133.0</ele><time>2026-04-29T12:40:54Z</time></trkpt><trkpt lat="40.08875079377461" lon="9.430093776352361"><ele>1131.3333333333335</ele><time>2026-04-29T12:40:55Z</time></trkpt><trkpt lat="40.08876911756795" lon="9.430183059355084"><ele>1129.6666666666667</ele><time>2026-04-29T12:40:56Z</time></trkpt><trkpt lat="40.08878247740241" lon="9.430268286827882"><ele>1128.0</ele><time>2026-04-29T12:40:57Z</time></trkpt><trkpt lat="40.088784778821726" lon="9.430358248256738"><ele>1126.3333333333333</ele><time>2026-04-29T12:40:58Z</time></trkpt><trkpt lat="40.08878472431396" lon="9.430458440789902"><ele>1124.6666666666665</ele><time>2026-04-29T12:40:59Z</time></trkpt><trkpt lat="40.08879986845748" lon="9.430557801192704"><ele>1123.0</ele><time>2026-04-29T12:41:00Z</time></trkpt><trkpt lat="40.08882430414966" lon="9.430670822804636"><ele>1121.8333333333333</ele><time>2026-04-29T12:41:01Z</time></trkpt><trkpt lat="40.08884429950855" lon="9.430779702164555"><ele>1120.6666666666665</ele><time>2026-04-29T12:41:02Z</time></trkpt><trkpt lat="40.08883126431558" lon="9.43094486057401"><ele>1119.5</ele><time>2026-04-29T12:41:04Z</time></trkpt><trkpt lat="40.08880676998414" lon="9.431037674749053"><ele>1118.3333333333333</ele><time>2026-04-29T12:41:05.001Z</time></trkpt><trkpt lat="40.08878557733437" lon="9.431135424131089"><ele>1117.1666666666667</ele><time>2026-04-29T12:41:06.001Z</time></trkpt><trkpt lat="40.08876430392965" lon="9.431237368886132"><ele>1116.0</ele><time>2026-04-29T12:41:07.001Z</time></trkpt><trkpt lat="40.08874699038122" lon="9.43133151882362"><ele>1114.6</ele><time>2026-04-29T12:41:08.001Z</time></trkpt><trkpt lat="40.08873620593991" lon="9.431491765201852"><ele>1113.1999999999998</ele><time>2026-04-29T12:41:10.001Z</time></trkpt><trkpt lat="40.088747722046485" lon="9.431589745543645"><ele>1111.8000000000002</ele><time>2026-04-29T12:41:11.001Z</time></trkpt><trkpt lat="40.088761086483665" lon="9.431703743364572"><ele>1110.4</ele><time>2026-04-29T12:41:12.001Z</time></trkpt><trkpt lat="40.0887801744651" lon="9.43181473317954"><ele>1109.0</ele><time>2026-04-29T12:41:13.001Z</time></trkpt><trkpt lat="40.08879381538213" lon="9.43192624717751"><ele>1109.0</ele><time>2026-04-29T12:41:14.001Z</time></trkpt><trkpt lat="40.0888133525954" lon="9.432021757662579"><ele>1109.0</ele><time>2026-04-29T12:41:15.001Z</time></trkpt><trkpt lat="40.088839546639356" lon="9.432114760314253"><ele>1109.0</ele><time>2026-04-29T12:41:16.001Z</time></trkpt><trkpt lat="40.08886610189408" lon="9.43221005953659"><ele>1109.0</ele><time>2026-04-29T12:41:17.001Z</time></trkpt><trkpt lat="40.08889738896918" lon="9.432310699962493"><ele>1109.0</ele><time>2026-04-29T12:41:18.001Z</time></trkpt><trkpt lat="40.088925198176064" lon="9.432410924664497"><ele>1109.0</ele><time>2026-04-29T12:41:19.001Z</time></trkpt><trkpt lat="40.08895323287602" lon="9.432512458223563"><ele>1107.8333333333335</ele><time>2026-04-29T12:41:20.001Z</time></trkpt><trkpt lat="40.08897212094475" lon="9.432622505355539"><ele>1106.6666666666667</ele><time>2026-04-29T12:41:21.001Z</time></trkpt><trkpt lat="40.08898297880798" lon="9.43273953748631"><ele>1105.5</ele><time>2026-04-29T12:41:22.001Z</time></trkpt><trkpt lat="40.088983777689315" lon="9.432844507630323"><ele>1104.3333333333333</ele><time>2026-04-29T12:41:23.001Z</time></trkpt><trkpt lat="40.0889660194587" lon="9.432941647713358"><ele>1103.1666666666665</ele><time>2026-04-29T12:41:24.001Z</time></trkpt><trkpt lat="40.08893220384859" lon="9.433038184876862"><ele>1102.0</ele><time>2026-04-29T12:41:25.001Z</time></trkpt><trkpt lat="40.088889091458775" lon="9.433146439381003"><ele>1099.75</ele><time>2026-04-29T12:41:26.001Z</time></trkpt><trkpt lat="40.08883699782714" lon="9.433263923559775"><ele>1097.5</ele><time>2026-04-29T12:41:27.001Z</time></trkpt><trkpt lat="40.0887753606074" lon="9.43337981798692"><ele>1095.25</ele><time>2026-04-29T12:41:28.001Z</time></trkpt><trkpt lat="40.08870285907827" lon="9.433501611373707"><ele>1093.0</ele><time>2026-04-29T12:41:29.001Z</time></trkpt><trkpt lat="40.08862793272791" lon="9.433630976922915"><ele>1093.0</ele><time>2026-04-29T12:41:30.001Z</time></trkpt><trkpt lat="40.08856442319651" lon="9.433763073346242"><ele>1093.0</ele><time>2026-04-29T12:41:31.001Z</time></trkpt><trkpt lat="40.088505019609066" lon="9.433896380209188"><ele>1093.0</ele><time>2026-04-29T12:41:32.001Z</time></trkpt><trkpt lat="40.088448844849836" lon="9.434014709552937"><ele>1093.0</ele><time>2026-04-29T12:41:33.001Z</time></trkpt><trkpt lat="40.088397931648295" lon="9.434112936037844"><ele>1093.0</ele><time>2026-04-29T12:41:34.001Z</time></trkpt><trkpt lat="40.08835111705516" lon="9.434220588056826"><ele>1093.3333333333333</ele><time>2026-04-29T12:41:35.001Z</time></trkpt><trkpt lat="40.08831296582484" lon="9.434335301722594"><ele>1093.6666666666665</ele><time>2026-04-29T12:41:36.001Z</time></trkpt><trkpt lat="40.08829274927876" lon="9.43443711103571"><ele>1094.0</ele><time>2026-04-29T12:41:37.001Z</time></trkpt><trkpt lat="40.08828828690083" lon="9.4345379971013"><ele>1094.3333333333333</ele><time>2026-04-29T12:41:38.001Z</time></trkpt><trkpt lat="40.08830001836741" lon="9.434650891992847"><ele>1094.6666666666667</ele><time>2026-04-29T12:41:39.001Z</time></trkpt><trkpt lat="40.08829613448995" lon="9.434787594280232"><ele>1095.0</ele><time>2026-04-29T12:41:40.001Z</time></trkpt><trkpt lat="40.08829218550456" lon="9.434926971828883"><ele>1096.6</ele><time>2026-04-29T12:41:41.001Z</time></trkpt><trkpt lat="40.0882921239758" lon="9.435064530065882"><ele>1098.2</ele><time>2026-04-29T12:41:42.001Z</time></trkpt><trkpt lat="40.08829616164367" lon="9.43519082241566"><ele>1099.8</ele><time>2026-04-29T12:41:43.001Z</time></trkpt><trkpt lat="40.088299269080416" lon="9.435317371641526"><ele>1101.4</ele><time>2026-04-29T12:41:44.001Z</time></trkpt><trkpt lat="40.08830030561777" lon="9.435438958817977"><ele>1103.0</ele><time>2026-04-29T12:41:45.001Z</time></trkpt><trkpt lat="40.08830393263264" lon="9.435563540575579"><ele>1104.0</ele><time>2026-04-29T12:41:46.001Z</time></trkpt><trkpt lat="40.088298761771284" lon="9.43568984195676"><ele>1105.0</ele><time>2026-04-29T12:41:47.001Z</time></trkpt><trkpt lat="40.088278971586746" lon="9.43580226728551"><ele>1106.0</ele><time>2026-04-29T12:41:48.001Z</time></trkpt><trkpt lat="40.088259144588896" lon="9.435925329630207"><ele>1107.0</ele><time>2026-04-29T12:41:49.001Z</time></trkpt><trkpt lat="40.08823744162747" lon="9.43603933232597"><ele>1108.0</ele><time>2026-04-29T12:41:50.001Z</time></trkpt><trkpt lat="40.088224620811836" lon="9.4361606263591"><ele>1102.0</ele><time>2026-04-29T12:41:51.001Z</time></trkpt><trkpt lat="40.0882081841085" lon="9.43628197909898"><ele>1096.0</ele><time>2026-04-29T12:41:52.001Z</time></trkpt><trkpt lat="40.08819616141673" lon="9.436407377620311"><ele>1090.0</ele><time>2026-04-29T12:41:53.001Z</time></trkpt><trkpt lat="40.088164308826286" lon="9.436541019992834"><ele>1084.0</ele><time>2026-04-29T12:41:55.001Z</time></trkpt><trkpt lat="40.088159122793336" lon="9.43664639160082"><ele>1078.0</ele><time>2026-04-29T12:41:57.001Z</time></trkpt><trkpt lat="40.08819344221098" lon="9.436823080226194"><ele>1077.5</ele><time>2026-04-29T12:41:59.001Z</time></trkpt><trkpt lat="40.08823666005099" lon="9.437335973960026"><ele>1077.0</ele><time>2026-04-29T12:42:00.001Z</time></trkpt><trkpt lat="40.08825963236925" lon="9.437468343594288"><ele>1083.2</ele><time>2026-04-29T12:42:01.001Z</time></trkpt><trkpt lat="40.0882716598673" lon="9.437603390640772"><ele>1089.4</ele><time>2026-04-29T12:42:02.001Z</time></trkpt><trkpt lat="40.0882739541944" lon="9.437748575978896"><ele>1095.6</ele><time>2026-04-29T12:42:03.001Z</time></trkpt><trkpt lat="40.088274069957315" lon="9.437896071902628"><ele>1101.8</ele><time>2026-04-29T12:42:04.001Z</time></trkpt><trkpt lat="40.08827361665346" lon="9.438046580191532"><ele>1108.0</ele><time>2026-04-29T12:42:05.001Z</time></trkpt><trkpt lat="40.088280018942775" lon="9.438196750309228"><ele>1108.0</ele><time>2026-04-29T12:42:06.001Z</time></trkpt><trkpt lat="40.088288812639014" lon="9.438332017019862"><ele>1108.0</ele><time>2026-04-29T12:42:07.001Z</time></trkpt><trkpt lat="40.088297427435336" lon="9.438461495851305"><ele>1108.0</ele><time>2026-04-29T12:42:08.001Z</time></trkpt><trkpt lat="40.0883089523561" lon="9.438585063004046"><ele>1108.0</ele><time>2026-04-29T12:42:09.001Z</time></trkpt><trkpt lat="40.08832633861746" lon="9.438708840144997"><ele>1108.0</ele><time>2026-04-29T12:42:10.001Z</time></trkpt><trkpt lat="40.088352995808606" lon="9.438833792060468"><ele>1106.8</ele><time>2026-04-29T12:42:11.001Z</time></trkpt><trkpt lat="40.08838037605464" lon="9.438961988651371"><ele>1105.6</ele><time>2026-04-29T12:42:12.001Z</time></trkpt><trkpt lat="40.08839911604043" lon="9.439096956267685"><ele>1104.4</ele><time>2026-04-29T12:42:13.001Z</time></trkpt><trkpt lat="40.08841918493999" lon="9.439234637344805"><ele>1103.2</ele><time>2026-04-29T12:42:14.001Z</time></trkpt><trkpt lat="40.08844553729234" lon="9.439365442073102"><ele>1102.0</ele><time>2026-04-29T12:42:15.001Z</time></trkpt><trkpt lat="40.08847941986001" lon="9.439493928527614"><ele>1102.0</ele><time>2026-04-29T12:42:16.001Z</time></trkpt><trkpt lat="40.08850957866269" lon="9.439628346942257"><ele>1102.0</ele><time>2026-04-29T12:42:17.001Z</time></trkpt><trkpt lat="40.088528404267805" lon="9.439773572700645"><ele>1102.0</ele><time>2026-04-29T12:42:18.001Z</time></trkpt><trkpt lat="40.08853925245653" lon="9.439914807598853"><ele>1102.0</ele><time>2026-04-29T12:42:19.001Z</time></trkpt><trkpt lat="40.088545926425034" lon="9.44004532370905"><ele>1102.0</ele><time>2026-04-29T12:42:20.001Z</time></trkpt><trkpt lat="40.08855681202204" lon="9.440171425865248"><ele>1101.0</ele><time>2026-04-29T12:42:21.001Z</time></trkpt><trkpt lat="40.088581366471416" lon="9.440286277791387"><ele>1100.0</ele><time>2026-04-29T12:42:22.001Z</time></trkpt><trkpt lat="40.08862628550475" lon="9.440399276293437"><ele>1099.0</ele><time>2026-04-29T12:42:23.001Z</time></trkpt><trkpt lat="40.08867732272248" lon="9.440514051523062"><ele>1098.0</ele><time>2026-04-29T12:42:24.001Z</time></trkpt><trkpt lat="40.08873731432071" lon="9.440618233517487"><ele>1097.0</ele><time>2026-04-29T12:42:25.001Z</time></trkpt><trkpt lat="40.088802872249445" lon="9.440721799867438"><ele>1098.0</ele><time>2026-04-29T12:42:26.001Z</time></trkpt><trkpt lat="40.088867796362244" lon="9.440802301167585"><ele>1099.0</ele><time>2026-04-29T12:42:27.001Z</time></trkpt><trkpt lat="40.088937720111744" lon="9.440863964225324"><ele>1100.0</ele><time>2026-04-29T12:42:28.001Z</time></trkpt><trkpt lat="40.08901565459979" lon="9.440906982071793"><ele>1101.0</ele><time>2026-04-29T12:42:29.001Z</time></trkpt><trkpt lat="40.089105264304415" lon="9.44093803244479"><ele>1102.0</ele><time>2026-04-29T12:42:30.001Z</time></trkpt><trkpt lat="40.08919925203329" lon="9.44095306840638"><ele>1103.0</ele><time>2026-04-29T12:42:31.001Z</time></trkpt><trkpt lat="40.089302282945" lon="9.440959294072872"><ele>1103.0</ele><time>2026-04-29T12:42:32.001Z</time></trkpt><trkpt lat="40.08940472535676" lon="9.440954782653527"><ele>1103.0</ele><time>2026-04-29T12:42:33.001Z</time></trkpt><trkpt lat="40.089500642519184" lon="9.440936610002526"><ele>1103.0</ele><time>2026-04-29T12:42:34.001Z</time></trkpt><trkpt lat="40.08958279485148" lon="9.440917993460406"><ele>1103.0</ele><time>2026-04-29T12:42:35.001Z</time></trkpt><trkpt lat="40.089668711142785" lon="9.440884233369554"><ele>1103.0</ele><time>2026-04-29T12:42:37.002Z</time></trkpt><trkpt lat="40.08339731436595" lon="9.423439303088955"><ele>1139.4</ele><time>2026-04-29T12:36:14Z</time></trkpt><trkpt lat="40.083432262005076" lon="9.423544434586894"><ele>1175.8</ele><time>2026-04-29T12:36:16Z</time></trkpt><trkpt lat="40.0834650234949" lon="9.423666253555373"><ele>1212.2</ele><time>2026-04-29T12:36:18Z</time></trkpt><trkpt lat="40.083498528812385" lon="9.423777620826646"><ele>1248.6</ele><time>2026-04-29T12:36:20Z</time></trkpt><trkpt lat="40.08353229723072" lon="9.42388800821518"><ele>1285.0</ele><time>2026-04-29T12:36:22Z</time></trkpt><trkpt lat="40.08356274691913" lon="9.42398748799644"><ele>1285.0</ele><time>2026-04-29T12:36:24Z</time></trkpt><trkpt lat="40.08358892488883" lon="9.424101021981228"><ele>1285.0</ele><time>2026-04-29T12:36:26Z</time></trkpt><trkpt lat="40.08361634347634" lon="9.424204367926"><ele>1285.0</ele><time>2026-04-29T12:36:28Z</time></trkpt><trkpt lat="40.08364763057482" lon="9.424322477672678"><ele>1285.0</ele><time>2026-04-29T12:36:30Z</time></trkpt><trkpt lat="40.08368622435427" lon="9.42445700281054"><ele>1285.0</ele><time>2026-04-29T12:36:32Z</time></trkpt><trkpt lat="40.083709538751606" lon="9.424534494255306"><ele>1285.0</ele><time>2026-04-29T12:36:33Z</time></trkpt><trkpt lat="40.083758108653896" lon="9.424674430840886"><ele>1281.6</ele><time>2026-04-29T12:36:35Z</time></trkpt><trkpt lat="40.08379425468668" lon="9.42480889821187"><ele>1278.2</ele><time>2026-04-29T12:36:37Z</time></trkpt><trkpt lat="40.08382748559155" lon="9.424940551091836"><ele>1274.8</ele><time>2026-04-29T12:36:39Z</time></trkpt><trkpt lat="40.08386229605936" lon="9.425083520875104"><ele>1271.4</ele><time>2026-04-29T12:36:41Z</time></trkpt><trkpt lat="40.08390009220566" lon="9.425219475768282"><ele>1268.0</ele><time>2026-04-29T12:36:43Z</time></trkpt><trkpt lat="40.08393952752335" lon="9.425354725306237"><ele>1264.2</ele><time>2026-04-29T12:36:45Z</time></trkpt><trkpt lat="40.083978480229995" lon="9.425485396824028"><ele>1260.4</ele><time>2026-04-29T12:36:47Z</time></trkpt><trkpt lat="40.08402038677341" lon="9.42561678209468"><ele>1256.6000000000001</ele><time>2026-04-29T12:36:49Z</time></trkpt><trkpt lat="40.0840465146172" lon="9.425750245779493"><ele>1252.8</ele><time>2026-04-29T12:36:51Z</time></trkpt><trkpt lat="40.08404763728749" lon="9.425879757175291"><ele>1249.0</ele><time>2026-04-29T12:36:53Z</time></trkpt><trkpt lat="40.08404643602164" lon="9.426022965753413"><ele>1249.0</ele><time>2026-04-29T12:36:55Z</time></trkpt><trkpt lat="40.08404994825164" lon="9.426157366531758"><ele>1249.0</ele><time>2026-04-29T12:36:57Z</time></trkpt><trkpt lat="40.084062929465794" lon="9.42626830740566"><ele>1249.0</ele><time>2026-04-29T12:36:59Z</time></trkpt><trkpt lat="40.084077909003504" lon="9.426395371533696"><ele>1249.0</ele><time>2026-04-29T12:37:01Z</time></trkpt><trkpt lat="40.08408720711045" lon="9.426522720065243"><ele>1249.0</ele><time>2026-04-29T12:37:03Z</time></trkpt><trkpt lat="40.08409377026876" lon="9.4266205691099"><ele>1248.2</ele><time>2026-04-29T12:37:05Z</time></trkpt><trkpt lat="40.08412162872434" lon="9.426721606860465"><ele>1247.4</ele><time>2026-04-29T12:37:08Z</time></trkpt><trkpt lat="40.08420962416689" lon="9.42677295464657"><ele>1246.6</ele><time>2026-04-29T12:37:11Z</time></trkpt><trkpt lat="40.084296552756975" lon="9.42676683899397"><ele>1245.8</ele><time>2026-04-29T12:37:13Z</time></trkpt><trkpt lat="40.08440167229523" lon="9.426771227862456"><ele>1245.0</ele><time>2026-04-29T12:37:15Z</time></trkpt><trkpt lat="40.08450487536559" lon="9.426779458422676"><ele>1245.0</ele><time>2026-04-29T12:37:17Z</time></trkpt><trkpt lat="40.08461248969286" lon="9.426795646143722"><ele>1245.0</ele><time>2026-04-29T12:37:19Z</time></trkpt><trkpt lat="40.08473041117265" lon="9.426828909819227"><ele>1245.0</ele><time>2026-04-29T12:37:21Z</time></trkpt><trkpt lat="40.08479490674507" lon="9.426855752488487"><ele>1245.0</ele><time>2026-04-29T12:37:22Z</time></trkpt><trkpt lat="40.08486007414506" lon="9.426886974494373"><ele>1245.0</ele><time>2026-04-29T12:37:23Z</time></trkpt><trkpt lat="40.08492660231133" lon="9.426917518646144"><ele>1245.0</ele><time>2026-04-29T12:37:24Z</time></trkpt><trkpt lat="40.084989628758166" lon="9.426946963706405"><ele>1242.857142857143</ele><time>2026-04-29T12:37:25Z</time></trkpt><trkpt lat="40.08505136969403" lon="9.426975173220379"><ele>1240.7142857142858</ele><time>2026-04-29T12:37:26Z</time></trkpt><trkpt lat="40.085111757244334" lon="9.427005761098892"><ele>1238.5714285714284</ele><time>2026-04-29T12:37:27Z</time></trkpt><trkpt lat="40.085171856615425" lon="9.427038284117252"><ele>1236.4285714285716</ele><time>2026-04-29T12:37:28Z</time></trkpt><trkpt lat="40.08523261122859" lon="9.427065711455363"><ele>1234.2857142857144</ele><time>2026-04-29T12:37:29Z</time></trkpt><trkpt lat="40.08529436911592" lon="9.427082852784531"><ele>1232.142857142857</ele><time>2026-04-29T12:37:30Z</time></trkpt><trkpt lat="40.08539901980496" lon="9.42711611837452"><ele>1230.0</ele><time>2026-04-29T12:37:32Z</time></trkpt><trkpt lat="40.085449972654814" lon="9.427177775012268"><ele>1228.6</ele><time>2026-04-29T12:37:34.001Z</time></trkpt><trkpt lat="40.0854229138467" lon="9.427254375621176"><ele>1227.2</ele><time>2026-04-29T12:37:36.001Z</time></trkpt><trkpt lat="40.08536955895607" lon="9.427340374441801"><ele>1225.8</ele><time>2026-04-29T12:37:38.001Z</time></trkpt><trkpt lat="40.085294001325494" lon="9.42742132705326"><ele>1224.4</ele><time>2026-04-29T12:37:40.001Z</time></trkpt><trkpt lat="40.085203130204874" lon="9.427495418336"><ele>1223.0</ele><time>2026-04-29T12:37:42.001Z</time></trkpt><trkpt lat="40.08510826603719" lon="9.42756555907952"><ele>1223.0</ele><time>2026-04-29T12:37:44.001Z</time></trkpt><trkpt lat="40.08501629166401" lon="9.427656802743305"><ele>1223.0</ele><time>2026-04-29T12:37:46.001Z</time></trkpt><trkpt lat="40.08492332108564" lon="9.427734244668816"><ele>1223.0</ele><time>2026-04-29T12:37:48.001Z</time></trkpt><trkpt lat="40.08483203838626" lon="9.427813503269055"><ele>1223.0</ele><time>2026-04-29T12:37:50.001Z</time></trkpt><trkpt lat="40.084731024986205" lon="9.427887675009961"><ele>1224.5</ele><time>2026-04-29T12:37:52.001Z</time></trkpt><trkpt lat="40.08462827379567" lon="9.427963213149278"><ele>1226.0</ele><time>2026-04-29T12:37:54.001Z</time></trkpt><trkpt lat="40.08453995089101" lon="9.428075168489023"><ele>1227.5</ele><time>2026-04-29T12:37:56.001Z</time></trkpt><trkpt lat="40.08446742736303" lon="9.428203774851923"><ele>1229.0</ele><time>2026-04-29T12:37:58.001Z</time></trkpt><trkpt lat="40.08440710651348" lon="9.42833543145371"><ele>1225.6000000000001</ele><time>2026-04-29T12:38:00.001Z</time></trkpt><trkpt lat="40.084355339360485" lon="9.42847438801647"><ele>1222.2</ele><time>2026-04-29T12:38:02.001Z</time></trkpt><trkpt lat="40.08430893024932" lon="9.428625345356236"><ele>1218.8000000000002</ele><time>2026-04-29T12:38:04.001Z</time></trkpt><trkpt lat="40.084281979466525" lon="9.42870060386719"><ele>1215.4</ele><time>2026-04-29T12:38:05.001Z</time></trkpt><trkpt lat="40.08424647051274" lon="9.428838025508526"><ele>1212.0</ele><time>2026-04-29T12:38:07.001Z</time></trkpt><trkpt lat="40.08425536076661" lon="9.428998016153407"><ele>1208.75</ele><time>2026-04-29T12:38:09.001Z</time></trkpt><trkpt lat="40.08427017124071" lon="9.429158678113225"><ele>1205.5</ele><time>2026-04-29T12:38:11.001Z</time></trkpt><trkpt lat="40.084280909526974" lon="9.429311142549983"><ele>1202.25</ele><time>2026-04-29T12:38:13.001Z</time></trkpt><trkpt lat="40.08428174650446" lon="9.429471722624202"><ele>1199.0</ele><time>2026-04-29T12:38:15.001Z</time></trkpt><trkpt lat="40.08428697077392" lon="9.429637383113546"><ele>1197.2</ele><time>2026-04-29T12:38:17Z</time></trkpt><trkpt lat="40.08429119457099" lon="9.429720263277824"><ele>1195.4</ele><time>2026-04-29T12:38:18Z</time></trkpt><trkpt lat="40.08430347760151" lon="9.429803312898033"><ele>1193.6</ele><time>2026-04-29T12:38:19Z</time></trkpt><trkpt lat="40.084317502349286" lon="9.429940126032243"><ele>1191.8</ele><time>2026-04-29T12:38:21Z</time></trkpt><trkpt lat="40.08431497467587" lon="9.43008074759937"><ele>1190.0</ele><time>2026-04-29T12:38:23Z</time></trkpt><trkpt lat="40.08431914486616" lon="9.430231129592471"><ele>1190.0</ele><time>2026-04-29T12:38:25Z</time></trkpt><trkpt lat="40.084325651195186" lon="9.430385891857767"><ele>1190.0</ele><time>2026-04-29T12:38:27Z</time></trkpt><trkpt lat="40.08433332621314" lon="9.430526950658864"><ele>1190.0</ele><time>2026-04-29T12:38:29Z</time></trkpt><trkpt lat="40.08436019627227" lon="9.430631777454574"><ele>1190.0</ele><time>2026-04-29T12:38:31Z</time></trkpt><trkpt lat="40.0844263118518" lon="9.430704002952192"><ele>1190.0</ele><time>2026-04-29T12:38:34Z</time></trkpt><trkpt lat="40.08450725089919" lon="9.430674239582888"><ele>1190.0</ele><time>2026-04-29T12:38:37Z</time></trkpt><trkpt lat="40.08456804515801" lon="9.430573351121462"><ele>1190.0</ele><time>2026-04-29T12:38:39Z</time></trkpt><trkpt lat="40.084653047272965" lon="9.430445020912053"><ele>1190.0</ele><time>2026-04-29T12:38:41Z</time></trkpt><trkpt lat="40.08469124674187" lon="9.430366658784633"><ele>1190.0</ele><time>2026-04-29T12:38:42Z</time></trkpt><trkpt lat="40.0847237671002" lon="9.430290519039245"><ele>1190.0</ele><time>2026-04-29T12:38:43Z</time></trkpt><trkpt lat="40.08475832151238" lon="9.430204575554056"><ele>1190.0</ele><time>2026-04-29T12:38:44Z</time></trkpt><trkpt lat="40.08479080876914" lon="9.430108850304375"><ele>1190.0</ele><time>2026-04-29T12:38:45Z</time></trkpt><trkpt lat="40.084826096628994" lon="9.430006745318375"><ele>1190.0</ele><time>2026-04-29T12:38:46Z</time></trkpt><trkpt lat="40.08486433281011" lon="9.429903105491848"><ele>1190.0</ele><time>2026-04-29T12:38:47Z</time></trkpt><trkpt lat="40.084900625334825" lon="9.429807739350178"><ele>1190.0</ele><time>2026-04-29T12:38:48Z</time></trkpt><trkpt lat="40.08493386358118" lon="9.429710387044532"><ele>1190.0</ele><time>2026-04-29T12:38:49Z</time></trkpt><trkpt lat="40.08496135544242" lon="9.429614673345492"><ele>1190.0</ele><time>2026-04-29T12:38:50Z</time></trkpt><trkpt lat="40.08498332979301" lon="9.429529080856133"><ele>1189.8333333333335</ele><time>2026-04-29T12:38:51Z</time></trkpt><trkpt lat="40.08500027168102" lon="9.429449195116359"><ele>1189.6666666666667</ele><time>2026-04-29T12:38:52Z</time></trkpt><trkpt lat="40.08505800426601" lon="9.429355902947496"><ele>1189.5</ele><time>2026-04-29T12:38:54Z</time></trkpt><trkpt lat="40.08514612417376" lon="9.429350815963561"><ele>1189.3333333333333</ele><time>2026-04-29T12:38:56Z</time></trkpt><trkpt lat="40.08520947783189" lon="9.429393239081563"><ele>1189.1666666666665</ele><time>2026-04-29T12:38:57Z</time></trkpt><trkpt lat="40.08527281492707" lon="9.429453439471542"><ele>1189.0</ele><time>2026-04-29T12:38:58Z</time></trkpt><trkpt lat="40.08534572179879" lon="9.429505340462148"><ele>1189.0</ele><time>2026-04-29T12:38:59Z</time></trkpt><trkpt lat="40.08542971279221" lon="9.429562174753046"><ele>1189.0</ele><time>2026-04-29T12:39:00Z</time></trkpt><trkpt lat="40.08551660841191" lon="9.429623337637558"><ele>1189.0</ele><time>2026-04-29T12:39:01Z</time></trkpt><trkpt lat="40.085602116476586" lon="9.429691961219444"><ele>1189.0</ele><time>2026-04-29T12:39:02Z</time></trkpt><trkpt lat="40.08567768368274" lon="9.429758353054405"><ele>1189.0</ele><time>2026-04-29T12:39:03Z</time></trkpt><trkpt lat="40.08575176193411" lon="9.429824494137476"><ele>1186.6666666666665</ele><time>2026-04-29T12:39:04Z</time></trkpt><trkpt lat="40.08582257859931" lon="9.429886479294655"><ele>1184.3333333333333</ele><time>2026-04-29T12:39:05Z</time></trkpt><trkpt lat="40.085887987361005" lon="9.42994406821107"><ele>1182.0</ele><time>2026-04-29T12:39:06Z</time></trkpt><trkpt lat="40.08596747176997" lon="9.43006411207585"><ele>1179.6666666666667</ele><time>2026-04-29T12:39:08Z</time></trkpt><trkpt lat="40.08600044868873" lon="9.430153875762535"><ele>1177.3333333333335</ele><time>2026-04-29T12:39:09Z</time></trkpt><trkpt lat="40.086036662857744" lon="9.430254839389228"><ele>1175.0</ele><time>2026-04-29T12:39:10Z</time></trkpt><trkpt lat="40.08607695727786" lon="9.430358650919533"><ele>1175.0</ele><time>2026-04-29T12:39:11Z</time></trkpt><trkpt lat="40.08612010676155" lon="9.430452569744107"><ele>1175.0</ele><time>2026-04-29T12:39:12Z</time></trkpt><trkpt lat="40.08616159305737" lon="9.430531651244642"><ele>1175.0</ele><time>2026-04-29T12:39:13.001Z</time></trkpt><trkpt lat="40.08620735019507" lon="9.430608348147985"><ele>1175.0</ele><time>2026-04-29T12:39:14.001Z</time></trkpt><trkpt lat="40.086259346648816" lon="9.430676824967023"><ele>1175.0</ele><time>2026-04-29T12:39:15.001Z</time></trkpt><trkpt lat="40.08635292739353" lon="9.430743453592616"><ele>1175.0</ele><time>2026-04-29T12:39:17.001Z</time></trkpt><trkpt lat="40.08646690418083" lon="9.430727543322034"><ele>1174.0</ele><time>2026-04-29T12:39:19.001Z</time></trkpt><trkpt lat="40.08652945258286" lon="9.430692399498323"><ele>1173.0</ele><time>2026-04-29T12:39:20.001Z</time></trkpt><trkpt lat="40.08659091768346" lon="9.43064353419414"><ele>1172.0</ele><time>2026-04-29T12:39:21.001Z</time></trkpt><trkpt lat="40.0866473842949" lon="9.43058359571239"><ele>1171.0</ele><time>2026-04-29T12:39:22.001Z</time></trkpt><trkpt lat="40.08669326722823" lon="9.43051872595769"><ele>1170.0</ele><time>2026-04-29T12:39:23.001Z</time></trkpt><trkpt lat="40.08674016755465" lon="9.430443885374816"><ele>1169.0</ele><time>2026-04-29T12:39:24.001Z</time></trkpt><trkpt lat="40.08678666518092" lon="9.430358292221367"><ele>1168.0</ele><time>2026-04-29T12:39:25.001Z</time></trkpt><trkpt lat="40.086831983332544" lon="9.430266942314173"><ele>1168.0</ele><time>2026-04-29T12:39:26.001Z</time></trkpt><trkpt lat="40.08687997226184" lon="9.430167369870178"><ele>1168.0</ele><time>2026-04-29T12:39:27.001Z</time></trkpt><trkpt lat="40.08692108986862" lon="9.430072220308027"><ele>1168.0</ele><time>2026-04-29T12:39:28.001Z</time></trkpt><trkpt lat="40.08695300549874" lon="9.429979464382637"><ele>1168.0</ele><time>2026-04-29T12:39:29.001Z</time></trkpt><trkpt lat="40.08697761664634" lon="9.429886676622173"><ele>1168.0</ele><time>2026-04-29T12:39:30.001Z</time></trkpt><trkpt lat="40.08699388595714" lon="9.429786455461796"><ele>1168.0</ele><time>2026-04-29T12:39:31.001Z</time></trkpt><trkpt lat="40.08701095909497" lon="9.429683583486975"><ele>1169.0</ele><time>2026-04-29T12:39:32.001Z</time></trkpt><trkpt lat="40.08703291350642" lon="9.429573053321494"><ele>1170.0</ele><time>2026-04-29T12:39:33.001Z</time></trkpt><trkpt lat="40.08705359199266" lon="9.429450141959252"><ele>1171.0</ele><time>2026-04-29T12:39:34.001Z</time></trkpt><trkpt lat="40.0870699748307" lon="9.429318321474252"><ele>1172.0</ele><time>2026-04-29T12:39:35.001Z</time></trkpt><trkpt lat="40.08708740067005" lon="9.42918950443564"><ele>1173.0</ele><time>2026-04-29T12:39:36.001Z</time></trkpt><trkpt lat="40.08710782044488" lon="9.429070860515377"><ele>1173.0</ele><time>2026-04-29T12:39:37.001Z</time></trkpt><trkpt lat="40.08714076303368" lon="9.428959864332208"><ele>1173.0</ele><time>2026-04-29T12:39:38.001Z</time></trkpt><trkpt lat="40.08718512338769" lon="9.428841118831409"><ele>1173.0</ele><time>2026-04-29T12:39:39.001Z</time></trkpt><trkpt lat="40.08722660680653" lon="9.428718897055532"><ele>1173.0</ele><time>2026-04-29T12:39:40.001Z</time></trkpt><trkpt lat="40.08726313094266" lon="9.428598457410452"><ele>1173.0</ele><time>2026-04-29T12:39:41.001Z</time></trkpt><trkpt lat="40.08729985446922" lon="9.428487814208719"><ele>1174.3333333333333</ele><time>2026-04-29T12:39:42.001Z</time></trkpt><trkpt lat="40.08734967180803" lon="9.428391431982165"><ele>1175.6666666666667</ele><time>2026-04-29T12:39:43.001Z</time></trkpt><trkpt lat="40.08740710550726" lon="9.428301855050245"><ele>1177.0</ele><time>2026-04-29T12:39:44.001Z</time></trkpt><trkpt lat="40.087465004163285" lon="9.428206214700321"><ele>1178.3333333333335</ele><time>2026-04-29T12:39:45.001Z</time></trkpt><trkpt lat="40.08751445783718" lon="9.428115367093703"><ele>1179.6666666666667</ele><time>2026-04-29T12:39:46.001Z</time></trkpt><trkpt lat="40.087559833544425" lon="9.428017029232894"><ele>1181.0</ele><time>2026-04-29T12:39:47.001Z</time></trkpt><trkpt lat="40.087598139983015" lon="9.427909507081335"><ele>1176.8333333333335</ele><time>2026-04-29T12:39:48.001Z</time></trkpt><trkpt lat="40.08763920757984" lon="9.42780051880352"><ele>1172.6666666666667</ele><time>2026-04-29T12:39:49.001Z</time></trkpt><trkpt lat="40.08768258198493" lon="9.427698657004173"><ele>1168.5</ele><time>2026-04-29T12:39:50.001Z</time></trkpt><trkpt lat="40.08772924287309" lon="9.427599614875525"><ele>1164.3333333333333</ele><time>2026-04-29T12:39:51.001Z</time></trkpt><trkpt lat="40.08777623842264" lon="9.427509388520438"><ele>1160.1666666666665</ele><time>2026-04-29T12:39:52.001Z</time></trkpt><trkpt lat="40.08781216903969" lon="9.427426761450791"><ele>1156.0</ele><time>2026-04-29T12:39:53.001Z</time></trkpt><trkpt lat="40.08786359806209" lon="9.42728959732403"><ele>1156.0</ele><time>2026-04-29T12:39:55.001Z</time></trkpt><trkpt lat="40.08792607186601" lon="9.427230497375136"><ele>1156.0</ele><time>2026-04-29T12:39:58.001Z</time></trkpt><trkpt lat="40.08798967540646" lon="9.42725357538715"><ele>1156.0</ele><time>2026-04-29T12:40:00.001Z</time></trkpt><trkpt lat="40.088019184652936" lon="9.42735063490412"><ele>1156.0</ele><time>2026-04-29T12:40:01.001Z</time></trkpt><trkpt lat="40.0880667782073" lon="9.427443049155533"><ele>1156.0</ele><time>2026-04-29T12:40:02.001Z</time></trkpt><trkpt lat="40.08810941919656" lon="9.427527122921399"><ele>1156.0</ele><time>2026-04-29T12:40:03.001Z</time></trkpt><trkpt lat="40.08813042172168" lon="9.427699704693525"><ele>1156.0</ele><time>2026-04-29T12:40:05.001Z</time></trkpt><trkpt lat="40.088121416698435" lon="9.42781396576614"><ele>1156.0</ele><time>2026-04-29T12:40:06.001Z</time></trkpt><trkpt lat="40.08812300791089" lon="9.42791702380848"><ele>1156.0</ele><time>2026-04-29T12:40:07.001Z</time></trkpt><trkpt lat="40.0881290379091" lon="9.428013048979205"><ele>1156.0</ele><time>2026-04-29T12:40:08.001Z</time></trkpt><trkpt lat="40.08814289359836" lon="9.428109379059952"><ele>1156.0</ele><time>2026-04-29T12:40:09.001Z</time></trkpt><trkpt lat="40.08817128608002" lon="9.428212269800873"><ele>1156.0</ele><time>2026-04-29T12:40:10.001Z</time></trkpt><trkpt lat="40.08820182672206" lon="9.428311395525943"><ele>1154.5</ele><time>2026-04-29T12:40:11.001Z</time></trkpt><trkpt lat="40.088226740651336" lon="9.428409351999273"><ele>1153.0</ele><time>2026-04-29T12:40:12.001Z</time></trkpt><trkpt lat="40.08825887199797" lon="9.428512004155985"><ele>1151.5</ele><time>2026-04-29T12:40:13.001Z</time></trkpt><trkpt lat="40.088295345579304" lon="9.428612113456214"><ele>1150.0</ele><time>2026-04-29T12:40:14.001Z</time></trkpt><trkpt lat="40.08833383523626" lon="9.428715873608493"><ele>1148.5</ele><time>2026-04-29T12:40:15.001Z</time></trkpt><trkpt lat="40.08837143803594" lon="9.42881499082972"><ele>1147.0</ele><time>2026-04-29T12:40:16.001Z</time></trkpt><trkpt lat="40.088409693750556" lon="9.428921791177528"><ele>1144.6666666666665</ele><time>2026-04-29T12:40:17.001Z</time></trkpt><trkpt lat="40.0884442488508" lon="9.429025015579164"><ele>1142.3333333333333</ele><time>2026-04-29T12:40:18.001Z</time></trkpt><trkpt lat="40.088471422488546" lon="9.429124894129494"><ele>1140.0</ele><time>2026-04-29T12:40:19.001Z</time></trkpt><trkpt lat="40.08849956299904" lon="9.429217096508026"><ele>1137.6666666666667</ele><time>2026-04-29T12:40:20.001Z</time></trkpt><trkpt lat="40.08851850351598" lon="9.429308211018451"><ele>1135.3333333333335</ele><time>2026-04-29T12:40:21.001Z</time></trkpt><trkpt lat="40.08854329370422" lon="9.42940266332844"><ele>1133.0</ele><time>2026-04-29T12:40:22Z</time></trkpt><trkpt lat="40.088574055446216" lon="9.429518890557816"><ele>1133.0</ele><time>2026-04-29T12:40:24Z</time></trkpt><trkpt lat="40.08860245976379" lon="9.429637499204162"><ele>1133.0</ele><time>2026-04-29T12:40:50Z</time></trkpt><trkpt lat="40.08866167059373" lon="9.429788729095948"><ele>1133.0</ele><time>2026-04-29T12:40:52Z</time></trkpt><trkpt lat="40.08869190688706" lon="9.429889429324477"><ele>1133.0</ele><time>2026-04-29T12:40:53Z</time></trkpt><trkpt lat="40.0887234533749" lon="9.429995383949194"><ele>1133.0</ele><time>2026-04-29T12:40:54Z</time></trkpt><trkpt lat="40.08875079377461" lon="9.430093776352361"><ele>1131.3333333333335</ele><time>2026-04-29T12:40:55Z</time></trkpt><trkpt lat="40.08876911756795" lon="9.430183059355084"><ele>1129.6666666666667</ele><time>2026-04-29T12:40:56Z</time></trkpt><trkpt lat="40.08878247740241" lon="9.430268286827882"><ele>1128.0</ele><time>2026-04-29T12:40:57Z</time></trkpt><trkpt lat="40.088784778821726" lon="9.430358248256738"><ele>1126.3333333333333</ele><time>2026-04-29T12:40:58Z</time></trkpt><trkpt lat="40.08878472431396" lon="9.430458440789902"><ele>1124.6666666666665</ele><time>2026-04-29T12:40:59Z</time></trkpt><trkpt lat="40.08879986845748" lon="9.430557801192704"><ele>1123.0</ele><time>2026-04-29T12:41:00Z</time></trkpt><trkpt lat="40.08882430414966" lon="9.430670822804636"><ele>1121.8333333333333</ele><time>2026-04-29T12:41:01Z</time></trkpt><trkpt lat="40.08884429950855" lon="9.430779702164555"><ele>1120.6666666666665</ele><time>2026-04-29T12:41:02Z</time></trkpt><trkpt lat="40.08883126431558" lon="9.43094486057401"><ele>1119.5</ele><time>2026-04-29T12:41:04Z</time></trkpt><trkpt lat="40.08880676998414" lon="9.431037674749053"><ele>1118.3333333333333</ele><time>2026-04-29T12:41:05.001Z</time></trkpt><trkpt lat="40.08878557733437" lon="9.431135424131089"><ele>1117.1666666666667</ele><time>2026-04-29T12:41:06.001Z</time></trkpt><trkpt lat="40.08876430392965" lon="9.431237368886132"><ele>1116.0</ele><time>2026-04-29T12:41:07.001Z</time></trkpt><trkpt lat="40.08874699038122" lon="9.43133151882362"><ele>1114.6</ele><time>2026-04-29T12:41:08.001Z</time></trkpt><trkpt lat="40.08873620593991" lon="9.431491765201852"><ele>1113.1999999999998</ele><time>2026-04-29T12:41:10.001Z</time></trkpt><trkpt lat="40.088747722046485" lon="9.431589745543645"><ele>1111.8000000000002</ele><time>2026-04-29T12:41:11.001Z</time></trkpt><trkpt lat="40.088761086483665" lon="9.431703743364572"><ele>1110.4</ele><time>2026-04-29T12:41:12.001Z</time></trkpt><trkpt lat="40.0887801744651" lon="9.43181473317954"><ele>1109.0</ele><time>2026-04-29T12:41:13.001Z</time></trkpt><trkpt lat="40.08879381538213" lon="9.43192624717751"><ele>1109.0</ele><time>2026-04-29T12:41:14.001Z</time></trkpt><trkpt lat="40.0888133525954" lon="9.432021757662579"><ele>1109.0</ele><time>2026-04-29T12:41:15.001Z</time></trkpt><trkpt lat="40.088839546639356" lon="9.432114760314253"><ele>1109.0</ele><time>2026-04-29T12:41:16.001Z</time></trkpt><trkpt lat="40.08886610189408" lon="9.43221005953659"><ele>1109.0</ele><time>2026-04-29T12:41:17.001Z</time></trkpt><trkpt lat="40.08889738896918" lon="9.432310699962493"><ele>1109.0</ele><time>2026-04-29T12:41:18.001Z</time></trkpt><trkpt lat="40.088925198176064" lon="9.432410924664497"><ele>1109.0</ele><time>2026-04-29T12:41:19.001Z</time></trkpt><trkpt lat="40.08895323287602" lon="9.432512458223563"><ele>1107.8333333333335</ele><time>2026-04-29T12:41:20.001Z</time></trkpt><trkpt lat="40.08897212094475" lon="9.432622505355539"><ele>1106.6666666666667</ele><time>2026-04-29T12:41:21.001Z</time></trkpt><trkpt lat="40.08898297880798" lon="9.43273953748631"><ele>1105.5</ele><time>2026-04-29T12:41:22.001Z</time></trkpt><trkpt lat="40.088983777689315" lon="9.432844507630323"><ele>1104.3333333333333</ele><time>2026-04-29T12:41:23.001Z</time></trkpt><trkpt lat="40.0889660194587" lon="9.432941647713358"><ele>1103.1666666666665</ele><time>2026-04-29T12:41:24.001Z</time></trkpt><trkpt lat="40.08893220384859" lon="9.433038184876862"><ele>1102.0</ele><time>2026-04-29T12:41:25.001Z</time></trkpt><trkpt lat="40.088889091458775" lon="9.433146439381003"><ele>1099.75</ele><time>2026-04-29T12:41:26.001Z</time></trkpt><trkpt lat="40.08883699782714" lon="9.433263923559775"><ele>1097.5</ele><time>2026-04-29T12:41:27.001Z</time></trkpt><trkpt lat="40.0887753606074" lon="9.43337981798692"><ele>1095.25</ele><time>2026-04-29T12:41:28.001Z</time></trkpt><trkpt lat="40.08870285907827" lon="9.433501611373707"><ele>1093.0</ele><time>2026-04-29T12:41:29.001Z</time></trkpt><trkpt lat="40.08862793272791" lon="9.433630976922915"><ele>1093.0</ele><time>2026-04-29T12:41:30.001Z</time></trkpt><trkpt lat="40.08856442319651" lon="9.433763073346242"><ele>1093.0</ele><time>2026-04-29T12:41:31.001Z</time></trkpt><trkpt lat="40.088505019609066" lon="9.433896380209188"><ele>1093.0</ele><time>2026-04-29T12:41:32.001Z</time></trkpt><trkpt lat="40.088448844849836" lon="9.434014709552937"><ele>1093.0</ele><time>2026-04-29T12:41:33.001Z</time></trkpt><trkpt lat="40.088397931648295" lon="9.434112936037844"><ele>1093.0</ele><time>2026-04-29T12:41:34.001Z</time></trkpt><trkpt lat="40.08835111705516" lon="9.434220588056826"><ele>1093.3333333333333</ele><time>2026-04-29T12:41:35.001Z</time></trkpt><trkpt lat="40.08831296582484" lon="9.434335301722594"><ele>1093.6666666666665</ele><time>2026-04-29T12:41:36.001Z</time></trkpt><trkpt lat="40.08829274927876" lon="9.43443711103571"><ele>1094.0</ele><time>2026-04-29T12:41:37.001Z</time></trkpt><trkpt lat="40.08828828690083" lon="9.4345379971013"><ele>1094.3333333333333</ele><time>2026-04-29T12:41:38.001Z</time></trkpt><trkpt lat="40.08830001836741" lon="9.434650891992847"><ele>1094.6666666666667</ele><time>2026-04-29T12:41:39.001Z</time></trkpt><trkpt lat="40.08829613448995" lon="9.434787594280232"><ele>1095.0</ele><time>2026-04-29T12:41:40.001Z</time></trkpt><trkpt lat="40.08829218550456" lon="9.434926971828883"><ele>1096.6</ele><time>2026-04-29T12:41:41.001Z</time></trkpt><trkpt lat="40.0882921239758" lon="9.435064530065882"><ele>1098.2</ele><time>2026-04-29T12:41:42.001Z</time></trkpt><trkpt lat="40.08829616164367" lon="9.43519082241566"><ele>1099.8</ele><time>2026-04-29T12:41:43.001Z</time></trkpt><trkpt lat="40.088299269080416" lon="9.435317371641526"><ele>1101.4</ele><time>2026-04-29T12:41:44.001Z</time></trkpt><trkpt lat="40.08830030561777" lon="9.435438958817977"><ele>1103.0</ele><time>2026-04-29T12:41:45.001Z</time></trkpt><trkpt lat="40.08830393263264" lon="9.435563540575579"><ele>1104.0</ele><time>2026-04-29T12:41:46.001Z</time></trkpt><trkpt lat="40.088298761771284" lon="9.43568984195676"><ele>1105.0</ele><time>2026-04-29T12:41:47.001Z</time></trkpt><trkpt lat="40.088278971586746" lon="9.43580226728551"><ele>1106.0</ele><time>2026-04-29T12:41:48.001Z</time></trkpt><trkpt lat="40.088259144588896" lon="9.435925329630207"><ele>1107.0</ele><time>2026-04-29T12:41:49.001Z</time></trkpt><trkpt lat="40.08823744162747" lon="9.43603933232597"><ele>1108.0</ele><time>2026-04-29T12:41:50.001Z</time></trkpt><trkpt lat="40.088224620811836" lon="9.4361606263591"><ele>1102.0</ele><time>2026-04-29T12:41:51.001Z</time></trkpt><trkpt lat="40.0882081841085" lon="9.43628197909898"><ele>1096.0</ele><time>2026-04-29T12:41:52.001Z</time></trkpt><trkpt lat="40.08819616141673" lon="9.436407377620311"><ele>1090.0</ele><time>2026-04-29T12:41:53.001Z</time></trkpt><trkpt lat="40.088164308826286" lon="9.436541019992834"><ele>1084.0</ele><time>2026-04-29T12:41:55.001Z</time></trkpt><trkpt lat="40.088159122793336" lon="9.43664639160082"><ele>1078.0</ele><time>2026-04-29T12:41:57.001Z</time></trkpt><trkpt lat="40.08819344221098" lon="9.436823080226194"><ele>1077.5</ele><time>2026-04-29T12:41:59.001Z</time></trkpt><trkpt lat="40.08823666005099" lon="9.437335973960026"><ele>1077.0</ele><time>2026-04-29T12:42:00.001Z</time></trkpt><trkpt lat="40.08825963236925" lon="9.437468343594288"><ele>1083.2</ele><time>2026-04-29T12:42:01.001Z</time></trkpt><trkpt lat="40.0882716598673" lon="9.437603390640772"><ele>1089.4</ele><time>2026-04-29T12:42:02.001Z</time></trkpt><trkpt lat="40.0882739541944" lon="9.437748575978896"><ele>1095.6</ele><time>2026-04-29T12:42:03.001Z</time></trkpt><trkpt lat="40.088274069957315" lon="9.437896071902628"><ele>1101.8</ele><time>2026-04-29T12:42:04.001Z</time></trkpt><trkpt lat="40.08827361665346" lon="9.438046580191532"><ele>1108.0</ele><time>2026-04-29T12:42:05.001Z</time></trkpt><trkpt lat="40.088280018942775" lon="9.438196750309228"><ele>1108.0</ele><time>2026-04-29T12:42:06.001Z</time></trkpt><trkpt lat="40.088288812639014" lon="9.438332017019862"><ele>1108.0</ele><time>2026-04-29T12:42:07.001Z</time></trkpt><trkpt lat="40.088297427435336" lon="9.438461495851305"><ele>1108.0</ele><time>2026-04-29T12:42:08.001Z</time></trkpt><trkpt lat="40.0883089523561" lon="9.438585063004046"><ele>1108.0</ele><time>2026-04-29T12:42:09.001Z</time></trkpt><trkpt lat="40.08832633861746" lon="9.438708840144997"><ele>1108.0</ele><time>2026-04-29T12:42:10.001Z</time></trkpt><trkpt lat="40.088352995808606" lon="9.438833792060468"><ele>1106.8</ele><time>2026-04-29T12:42:11.001Z</time></trkpt><trkpt lat="40.08838037605464" lon="9.438961988651371"><ele>1105.6</ele><time>2026-04-29T12:42:12.001Z</time></trkpt><trkpt lat="40.08839911604043" lon="9.439096956267685"><ele>1104.4</ele><time>2026-04-29T12:42:13.001Z</time></trkpt><trkpt lat="40.08841918493999" lon="9.439234637344805"><ele>1103.2</ele><time>2026-04-29T12:42:14.001Z</time></trkpt><trkpt lat="40.08844553729234" lon="9.439365442073102"><ele>1102.0</ele><time>2026-04-29T12:42:15.001Z</time></trkpt><trkpt lat="40.08847941986001" lon="9.439493928527614"><ele>1102.0</ele><time>2026-04-29T12:42:16.001Z</time></trkpt><trkpt lat="40.08850957866269" lon="9.439628346942257"><ele>1102.0</ele><time>2026-04-29T12:42:17.001Z</time></trkpt><trkpt lat="40.088528404267805" lon="9.439773572700645"><ele>1102.0</ele><time>2026-04-29T12:42:18.001Z</time></trkpt><trkpt lat="40.08853925245653" lon="9.439914807598853"><ele>1102.0</ele><time>2026-04-29T12:42:19.001Z</time></trkpt><trkpt lat="40.088545926425034" lon="9.44004532370905"><ele>1102.0</ele><time>2026-04-29T12:42:20.001Z</time></trkpt><trkpt lat="40.08855681202204" lon="9.440171425865248"><ele>1101.0</ele><time>2026-04-29T12:42:21.001Z</time></trkpt><trkpt lat="40.088581366471416" lon="9.440286277791387"><ele>1100.0</ele><time>2026-04-29T12:42:22.001Z</time></trkpt><trkpt lat="40.08862628550475" lon="9.440399276293437"><ele>1099.0</ele><time>2026-04-29T12:42:23.001Z</time></trkpt><trkpt lat="40.08867732272248" lon="9.440514051523062"><ele>1098.0</ele><time>2026-04-29T12:42:24.001Z</time></trkpt><trkpt lat="40.08873731432071" lon="9.440618233517487"><ele>1097.0</ele><time>2026-04-29T12:42:25.001Z</time></trkpt><trkpt lat="40.088802872249445" lon="9.440721799867438"><ele>1098.0</ele><time>2026-04-29T12:42:26.001Z</time></trkpt><trkpt lat="40.088867796362244" lon="9.440802301167585"><ele>1099.0</ele><time>2026-04-29T12:42:27.001Z</time></trkpt><trkpt lat="40.088937720111744" lon="9.440863964225324"><ele>1100.0</ele><time>2026-04-29T12:42:28.001Z</time></trkpt><trkpt lat="40.08901565459979" lon="9.440906982071793"><ele>1101.0</ele><time>2026-04-29T12:42:29.001Z</time></trkpt><trkpt lat="40.089105264304415" lon="9.44093803244479"><ele>1102.0</ele><time>2026-04-29T12:42:30.001Z</time></trkpt><trkpt lat="40.08919925203329" lon="9.44095306840638"><ele>1103.0</ele><time>2026-04-29T12:42:31.001Z</time></trkpt><trkpt lat="40.089302282945" lon="9.440959294072872"><ele>1103.0</ele><time>2026-04-29T12:42:32.001Z</time></trkpt><trkpt lat="40.08940472535676" lon="9.440954782653527"><ele>1103.0</ele><time>2026-04-29T12:42:33.001Z</time></trkpt><trkpt lat="40.089500642519184" lon="9.440936610002526"><ele>1103.0</ele><time>2026-04-29T12:42:34.001Z</time></trkpt><trkpt lat="40.08958279485148" lon="9.440917993460406"><ele>1103.0</ele><time>2026-04-29T12:42:35.001Z</time></trkpt><trkpt lat="40.089668711142785" lon="9.440884233369554"><ele>1103.0</ele><time>2026-04-29T12:42:37.002Z</time></trkpt><trkpt lat="40.08962452840927" lon="9.44095333862422"><ele>1103.0</ele><time>2026-04-29T12:44:43.003Z</time></trkpt><trkpt lat="40.089641494561285" lon="9.441038803879694"><ele>1103.0</ele><time>2026-04-29T12:45:42.004Z</time></trkpt><trkpt lat="40.08966429027995" lon="9.441129710771914"><ele>1103.0</ele><time>2026-04-29T12:45:44.004Z</time></trkpt><trkpt lat="40.08973560960522" lon="9.441233032237369"><ele>1103.0</ele><time>2026-04-29T12:45:46.004Z</time></trkpt><trkpt lat="40.089798213345425" lon="9.441345511465535"><ele>1103.0</ele><time>2026-04-29T12:45:48.004Z</time></trkpt><trkpt lat="40.08984838594873" lon="9.44144170690758"><ele>1103.0</ele><time>2026-04-29T12:45:50.004Z</time></trkpt><trkpt lat="40.08993411511398" lon="9.441552195174463"><ele>1101.1666666666667</ele><time>2026-04-29T12:45:52.004Z</time></trkpt><trkpt lat="40.089980447951" lon="9.441611122543543"><ele>1099.3333333333335</ele><time>2026-04-29T12:45:53.004Z</time></trkpt><trkpt lat="40.090032899994824" lon="9.441673246908449"><ele>1097.5</ele><time>2026-04-29T12:45:54.004Z</time></trkpt><trkpt lat="40.090084425304305" lon="9.44173475705067"><ele>1095.6666666666667</ele><time>2026-04-29T12:45:55.004Z</time></trkpt><trkpt lat="40.090167260793436" lon="9.441835116441"><ele>1093.8333333333333</ele><time>2026-04-29T12:45:57.004Z</time></trkpt><trkpt lat="40.090220565457194" lon="9.441937288347798"><ele>1092.0</ele><time>2026-04-29T12:45:59.004Z</time></trkpt><trkpt lat="40.090239164350294" lon="9.442085601720898"><ele>1090.3333333333333</ele><time>2026-04-29T12:46:01.004Z</time></trkpt><trkpt lat="40.090240504353474" lon="9.44217431780439"><ele>1088.6666666666667</ele><time>2026-04-29T12:46:02.004Z</time></trkpt><trkpt lat="40.090244263882425" lon="9.442271650612287"><ele>1087.0</ele><time>2026-04-29T12:46:03.004Z</time></trkpt><trkpt lat="40.09024203386998" lon="9.442375797266791"><ele>1085.3333333333335</ele><time>2026-04-29T12:46:04.004Z</time></trkpt><trkpt lat="40.09023903461663" lon="9.44248228418697"><ele>1083.6666666666667</ele><time>2026-04-29T12:46:05.004Z</time></trkpt><trkpt lat="40.09023207159321" lon="9.44258763706426"><ele>1082.0</ele><time>2026-04-29T12:46:06.004Z</time></trkpt><trkpt lat="40.090226790039694" lon="9.442688229491393"><ele>1082.0</ele><time>2026-04-29T12:46:07.004Z</time></trkpt><trkpt lat="40.09021900730025" lon="9.442788718053379"><ele>1082.0</ele><time>2026-04-29T12:46:08.004Z</time></trkpt><trkpt lat="40.09020469127232" lon="9.44288601641848"><ele>1082.0</ele><time>2026-04-29T12:46:09.004Z</time></trkpt><trkpt lat="40.09018083233371" lon="9.44296852080493"><ele>1082.0</ele><time>2026-04-29T12:46:10.004Z</time></trkpt><trkpt lat="40.09014591001689" lon="9.443038495917351"><ele>1082.0</ele><time>2026-04-29T12:46:11.004Z</time></trkpt><trkpt lat="40.09005621989669" lon="9.44315514707211"><ele>1082.0</ele><time>2026-04-29T12:46:13.004Z</time></trkpt><trkpt lat="40.090001952752274" lon="9.443214862808475"><ele>1080.5</ele><time>2026-04-29T12:46:14.004Z</time></trkpt><trkpt lat="40.08994046693648" lon="9.443269342881607"><ele>1079.0</ele><time>2026-04-29T12:46:15.004Z</time></trkpt><trkpt lat="40.089873749437004" lon="9.44331719846764"><ele>1077.5</ele><time>2026-04-29T12:46:16.004Z</time></trkpt><trkpt lat="40.08980574275519" lon="9.443354577507353"><ele>1076.0</ele><time>2026-04-29T12:46:17.004Z</time></trkpt><trkpt lat="40.089728184838044" lon="9.443386020453314"><ele>1074.5</ele><time>2026-04-29T12:46:18.004Z</time></trkpt><trkpt lat="40.08964952117345" lon="9.443413471408645"><ele>1073.0</ele><time>2026-04-29T12:46:19.004Z</time></trkpt><trkpt lat="40.08958089023611" lon="9.443428162755382"><ele>1071.0</ele><time>2026-04-29T12:46:20.004Z</time></trkpt><trkpt lat="40.089474311355865" lon="9.443438734611597"><ele>1069.0</ele><time>2026-04-29T12:46:22.004Z</time></trkpt><trkpt lat="40.08933846106483" lon="9.443424272273406"><ele>1067.0</ele><time>2026-04-29T12:46:24.004Z</time></trkpt><trkpt lat="40.0892537701828" lon="9.443409778584906"><ele>1065.0</ele><time>2026-04-29T12:46:25.004Z</time></trkpt><trkpt lat="40.08916968699761" lon="9.443394381799946"><ele>1063.0</ele><time>2026-04-29T12:46:26.004Z</time></trkpt><trkpt lat="40.089101305790905" lon="9.443380653931664"><ele>1059.5</ele><time>2026-04-29T12:46:27.004Z</time></trkpt><trkpt lat="40.0890204511723" lon="9.443396363130036"><ele>1056.0</ele><time>2026-04-29T12:46:29.004Z</time></trkpt><trkpt lat="40.08895613957871" lon="9.443501637330025"><ele>1052.5</ele><time>2026-04-29T12:46:31.004Z</time></trkpt><trkpt lat="40.08892495326" lon="9.443601462031666"><ele>1049.0</ele><time>2026-04-29T12:46:32.004Z</time></trkpt><trkpt lat="40.08890074056567" lon="9.443708105141207"><ele>1045.5</ele><time>2026-04-29T12:46:33.004Z</time></trkpt><trkpt lat="40.08887853863771" lon="9.443825227983094"><ele>1042.0</ele><time>2026-04-29T12:46:34.004Z</time></trkpt><trkpt lat="40.08884928078347" lon="9.443950262437314"><ele>1042.0</ele><time>2026-04-29T12:46:35.004Z</time></trkpt><trkpt lat="40.08881667932648" lon="9.444070229966293"><ele>1042.0</ele><time>2026-04-29T12:46:36.004Z</time></trkpt><trkpt lat="40.08878366060491" lon="9.444166435545771"><ele>1042.0</ele><time>2026-04-29T12:46:37.004Z</time></trkpt><trkpt lat="40.08874262862902" lon="9.444266862951538"><ele>1042.0</ele><time>2026-04-29T12:46:38.004Z</time></trkpt><trkpt lat="40.0886894214137" lon="9.444368324485296"><ele>1042.0</ele><time>2026-04-29T12:46:39.004Z</time></trkpt><trkpt lat="40.08863787535682" lon="9.444473996244419"><ele>1042.0</ele><time>2026-04-29T12:46:40.004Z</time></trkpt><trkpt lat="40.08859590173785" lon="9.444580830732953"><ele>1042.0</ele><time>2026-04-29T12:46:41.004Z</time></trkpt><trkpt lat="40.08855719398326" lon="9.444696112588451"><ele>1042.0</ele><time>2026-04-29T12:46:42.004Z</time></trkpt><trkpt lat="40.088516394804614" lon="9.444808517686837"><ele>1042.0</ele><time>2026-04-29T12:46:43.004Z</time></trkpt><trkpt lat="40.088470213285525" lon="9.444919022704608"><ele>1042.0</ele><time>2026-04-29T12:46:44.004Z</time></trkpt><trkpt lat="40.088422861312736" lon="9.445031981418104"><ele>1042.0</ele><time>2026-04-29T12:46:45.004Z</time></trkpt><trkpt lat="40.08838087651977" lon="9.44514282227341"><ele>1042.0</ele><time>2026-04-29T12:46:46.004Z</time></trkpt><trkpt lat="40.08834652132885" lon="9.44525111916693"><ele>1042.0</ele><time>2026-04-29T12:46:47.004Z</time></trkpt><trkpt lat="40.08833443738468" lon="9.445346899625276"><ele>1042.0</ele><time>2026-04-29T12:46:48.004Z</time></trkpt><trkpt lat="40.088337367602996" lon="9.445435721882065"><ele>1042.0</ele><time>2026-04-29T12:46:49.004Z</time></trkpt><trkpt lat="40.0883515731964" lon="9.445546672737269"><ele>1042.0</ele><time>2026-04-29T12:46:50.004Z</time></trkpt><trkpt lat="40.0883744591215" lon="9.445666487912261"><ele>1040.8</ele><time>2026-04-29T12:46:51.004Z</time></trkpt><trkpt lat="40.088404951748096" lon="9.445794074548388"><ele>1039.6</ele><time>2026-04-29T12:46:52.004Z</time></trkpt><trkpt lat="40.088432389573995" lon="9.44592612424914"><ele>1038.3999999999999</ele><time>2026-04-29T12:46:53.004Z</time></trkpt><trkpt lat="40.088457811911006" lon="9.446072352687034"><ele>1037.2</ele><time>2026-04-29T12:46:54.004Z</time></trkpt><trkpt lat="40.088486176151285" lon="9.446215244644645"><ele>1036.0</ele><time>2026-04-29T12:46:55.004Z</time></trkpt><trkpt lat="40.08851832403565" lon="9.446363872620882"><ele>1033.75</ele><time>2026-04-29T12:46:56.004Z</time></trkpt><trkpt lat="40.08855449410145" lon="9.446510150939025"><ele>1031.5</ele><time>2026-04-29T12:46:57.004Z</time></trkpt><trkpt lat="40.08859296340455" lon="9.446653107791398"><ele>1029.25</ele><time>2026-04-29T12:46:58.004Z</time></trkpt><trkpt lat="40.08862989208507" lon="9.446798299775269"><ele>1027.0</ele><time>2026-04-29T12:46:59.004Z</time></trkpt><trkpt lat="40.088673223038704" lon="9.446952489125371"><ele>1027.0</ele><time>2026-04-29T12:47:00.004Z</time></trkpt><trkpt lat="40.08872178680589" lon="9.44710636436395"><ele>1027.0</ele><time>2026-04-29T12:47:01.004Z</time></trkpt><trkpt lat="40.08876765621569" lon="9.447247955490793"><ele>1027.0</ele><time>2026-04-29T12:47:02.004Z</time></trkpt><trkpt lat="40.088809898495605" lon="9.447388227229782"><ele>1027.0</ele><time>2026-04-29T12:47:03.004Z</time></trkpt><trkpt lat="40.08884770595654" lon="9.447539750995118"><ele>1027.0</ele><time>2026-04-29T12:47:04.004Z</time></trkpt><trkpt lat="40.08887800385999" lon="9.447690975428825"><ele>1027.0</ele><time>2026-04-29T12:47:05.004Z</time></trkpt><trkpt lat="40.08890861119677" lon="9.447830035489725"><ele>1027.0</ele><time>2026-04-29T12:47:06.005Z</time></trkpt><trkpt lat="40.08894022561815" lon="9.447963587732655"><ele>1027.0</ele><time>2026-04-29T12:47:07.005Z</time></trkpt><trkpt lat="40.0889676981397" lon="9.448078521066716"><ele>1027.0</ele><time>2026-04-29T12:47:08.005Z</time></trkpt><trkpt lat="40.088985486339574" lon="9.448182908532488"><ele>1027.4</ele><time>2026-04-29T12:47:09.005Z</time></trkpt><trkpt lat="40.08900042948958" lon="9.448295082838685"><ele>1027.8000000000002</ele><time>2026-04-29T12:47:10.005Z</time></trkpt><trkpt lat="40.08900839682622" lon="9.44841807958229"><ele>1028.2</ele><time>2026-04-29T12:47:11.005Z</time></trkpt><trkpt lat="40.089015905637375" lon="9.448559171199909"><ele>1028.6000000000001</ele><time>2026-04-29T12:47:12.005Z</time></trkpt><trkpt lat="40.08901584922616" lon="9.448702201835127"><ele>1029.0</ele><time>2026-04-29T12:47:13.005Z</time></trkpt><trkpt lat="40.08901214103494" lon="9.44883921490439"><ele>1029.0</ele><time>2026-04-29T12:47:14.005Z</time></trkpt><trkpt lat="40.089000193964466" lon="9.448959347632437"><ele>1029.0</ele><time>2026-04-29T12:47:15.005Z</time></trkpt><trkpt lat="40.088976777278354" lon="9.449065210569431"><ele>1029.0</ele><time>2026-04-29T12:47:16.005Z</time></trkpt><trkpt lat="40.088943341273705" lon="9.449169216127821"><ele>1029.0</ele><time>2026-04-29T12:47:17.005Z</time></trkpt><trkpt lat="40.08890006351527" lon="9.44927469338143"><ele>1029.0</ele><time>2026-04-29T12:47:18.005Z</time></trkpt><trkpt lat="40.08884649101338" lon="9.449382934011567"><ele>1029.0</ele><time>2026-04-29T12:47:19.005Z</time></trkpt><trkpt lat="40.08878474379643" lon="9.449489429195538"><ele>1029.0</ele><time>2026-04-29T12:47:20.005Z</time></trkpt><trkpt lat="40.088717638624345" lon="9.449591558985274"><ele>1029.0</ele><time>2026-04-29T12:47:21.005Z</time></trkpt><trkpt lat="40.08865021469025" lon="9.449689364990556"><ele>1029.0</ele><time>2026-04-29T12:47:22.005Z</time></trkpt><trkpt lat="40.088591768067666" lon="9.449760465087666"><ele>1029.0</ele><time>2026-04-29T12:47:23.005Z</time></trkpt><trkpt lat="40.08853511555185" lon="9.449812962315143"><ele>1027.5</ele><time>2026-04-29T12:47:24.005Z</time></trkpt><trkpt lat="40.08847449616483" lon="9.449855483990158"><ele>1026.0</ele><time>2026-04-29T12:47:25.005Z</time></trkpt><trkpt lat="40.08840909815882" lon="9.449883038931858"><ele>1024.5</ele><time>2026-04-29T12:47:26.005Z</time></trkpt><trkpt lat="40.08833669527938" lon="9.449889444464752"><ele>1023.0</ele><time>2026-04-29T12:47:27.005Z</time></trkpt><trkpt lat="40.088260300447" lon="9.449880951970885"><ele>1021.5</ele><time>2026-04-29T12:47:28.005Z</time></trkpt><trkpt lat="40.088180586920046" lon="9.449857527547877"><ele>1020.0</ele><time>2026-04-29T12:47:29.005Z</time></trkpt><trkpt lat="40.088099978047325" lon="9.449820338318716"><ele>1017.8</ele><time>2026-04-29T12:47:30.005Z</time></trkpt><trkpt lat="40.08802330509999" lon="9.449759125086791"><ele>1015.6</ele><time>2026-04-29T12:47:31.005Z</time></trkpt><trkpt lat="40.087942795262144" lon="9.449695268854674"><ele>1013.4000000000001</ele><time>2026-04-29T12:47:32.005Z</time></trkpt><trkpt lat="40.0878698723284" lon="9.449617511164906"><ele>1011.2</ele><time>2026-04-29T12:47:33.005Z</time></trkpt><trkpt lat="40.08780038576943" lon="9.44952526818548"><ele>1009.0</ele><time>2026-04-29T12:47:34.005Z</time></trkpt><trkpt lat="40.08773206804698" lon="9.449426543679904"><ele>1009.0</ele><time>2026-04-29T12:47:35.005Z</time></trkpt><trkpt lat="40.08767778122611" lon="9.449324892346837"><ele>1009.0000000000001</ele><time>2026-04-29T12:47:36.005Z</time></trkpt><trkpt lat="40.08763005286471" lon="9.449219759714321"><ele>1009.0000000000001</ele><time>2026-04-29T12:47:37.005Z</time></trkpt><trkpt lat="40.08759345155181" lon="9.449103362014927"><ele>1009.0</ele><time>2026-04-29T12:47:38.005Z</time></trkpt><trkpt lat="40.08756026635645" lon="9.44898894458388"><ele>1009.0</ele><time>2026-04-29T12:47:39.005Z</time></trkpt><trkpt lat="40.08752647692441" lon="9.448877427333247"><ele>1008.4999999999999</ele><time>2026-04-29T12:47:40.005Z</time></trkpt><trkpt lat="40.087500606305696" lon="9.44877562513524"><ele>1008.0</ele><time>2026-04-29T12:47:41.005Z</time></trkpt><trkpt lat="40.08746922118699" lon="9.44867321468928"><ele>1007.5</ele><time>2026-04-29T12:47:42.005Z</time></trkpt><trkpt lat="40.08744241061113" lon="9.44856857618715"><ele>1007.0</ele><time>2026-04-29T12:47:43.005Z</time></trkpt><trkpt lat="40.08742769145287" lon="9.44846404503223"><ele>1006.4999999999999</ele><time>2026-04-29T12:47:44.005Z</time></trkpt><trkpt lat="40.08742748401689" lon="9.448350298825387"><ele>1006.0</ele><time>2026-04-29T12:47:45.005Z</time></trkpt><trkpt lat="40.087441816500736" lon="9.44823189380693"><ele>1006.0</ele><time>2026-04-29T12:47:46.005Z</time></trkpt><trkpt lat="40.08746409116216" lon="9.448115612216977"><ele>1005.9999999999999</ele><time>2026-04-29T12:47:47.005Z</time></trkpt><trkpt lat="40.087487200263546" lon="9.447993520169955"><ele>1005.9999999999999</ele><time>2026-04-29T12:47:48.005Z</time></trkpt><trkpt lat="40.0875119826702" lon="9.447872930988357"><ele>1006.0</ele><time>2026-04-29T12:47:49.005Z</time></trkpt><trkpt lat="40.087534920936726" lon="9.44775723540589"><ele>1006.0</ele><time>2026-04-29T12:47:50.005Z</time></trkpt><trkpt lat="40.08755618581688" lon="9.447634557772986"><ele>1005.0</ele><time>2026-04-29T12:47:51.005Z</time></trkpt><trkpt lat="40.08757910113871" lon="9.447510431146718"><ele>1003.9999999999999</ele><time>2026-04-29T12:47:52.005Z</time></trkpt><trkpt lat="40.087602158469515" lon="9.447378405126207"><ele>1002.9999999999999</ele><time>2026-04-29T12:47:53.005Z</time></trkpt><trkpt lat="40.087627458851244" lon="9.447254614863942"><ele>1002.0</ele><time>2026-04-29T12:47:54.005Z</time></trkpt><trkpt lat="40.08764524252307" lon="9.447137565711328"><ele>1001.0</ele><time>2026-04-29T12:47:55.005Z</time></trkpt><trkpt lat="40.08765804015056" lon="9.44703792213643"><ele>1001.0</ele><time>2026-04-29T12:47:56.005Z</time></trkpt><trkpt lat="40.08765902370054" lon="9.446953952561303"><ele>1000.9999999999999</ele><time>2026-04-29T12:47:57.005Z</time></trkpt><trkpt lat="40.087653554347504" lon="9.446807901209455"><ele>1000.9999999999999</ele><time>2026-04-29T12:47:59.005Z</time></trkpt><trkpt lat="40.08759070537348" lon="9.446715374584482"><ele>1001.0</ele><time>2026-04-29T12:48:01.005Z</time></trkpt><trkpt lat="40.08750774238346" lon="9.446705067856943"><ele>1001.0</ele><time>2026-04-29T12:48:03.005Z</time></trkpt><trkpt lat="40.087399077575675" lon="9.446782610901861"><ele>1000.6666666666667</ele><time>2026-04-29T12:48:05.005Z</time></trkpt><trkpt lat="40.0873417763051" lon="9.446848400210527"><ele>1000.3333333333334</ele><time>2026-04-29T12:48:06.005Z</time></trkpt><trkpt lat="40.08728280161055" lon="9.446918091277622"><ele>1000.0</ele><time>2026-04-29T12:48:07.005Z</time></trkpt><trkpt lat="40.0872256005908" lon="9.446976011820011"><ele>999.6666666666667</ele><time>2026-04-29T12:48:08.005Z</time></trkpt><trkpt lat="40.087167142842986" lon="9.447030802808486"><ele>999.3333333333334</ele><time>2026-04-29T12:48:09.005Z</time></trkpt><trkpt lat="40.08709856240385" lon="9.44709400161592"><ele>999.0</ele><time>2026-04-29T12:48:10.005Z</time></trkpt><trkpt lat="40.08702131801044" lon="9.447173195807459"><ele>999.0</ele><time>2026-04-29T12:48:11.005Z</time></trkpt><trkpt lat="40.0869398456874" lon="9.447267786157662"><ele>999.0000000000001</ele><time>2026-04-29T12:48:12.005Z</time></trkpt><trkpt lat="40.08686258987389" lon="9.447347915757929"><ele>999.0000000000001</ele><time>2026-04-29T12:48:13.005Z</time></trkpt><trkpt lat="40.08678507921135" lon="9.447438623911511"><ele>999.0</ele><time>2026-04-29T12:48:14.005Z</time></trkpt><trkpt lat="40.086699604662556" lon="9.447530886336592"><ele>999.0</ele><time>2026-04-29T12:48:15.005Z</time></trkpt><trkpt lat="40.086613905718984" lon="9.447621512495326"><ele>1000.6666666666666</ele><time>2026-04-29T12:48:16.005Z</time></trkpt><trkpt lat="40.08654088122563" lon="9.447701909985204"><ele>1002.3333333333333</ele><time>2026-04-29T12:48:17.005Z</time></trkpt><trkpt lat="40.08649507574309" lon="9.447766754047747"><ele>1004.0</ele><time>2026-04-29T12:48:18.005Z</time></trkpt><trkpt lat="40.08643684935872" lon="9.447909364881527"><ele>1005.6666666666666</ele><time>2026-04-29T12:48:20.005Z</time></trkpt><trkpt lat="40.0864147938138" lon="9.447995097666913"><ele>1007.3333333333333</ele><time>2026-04-29T12:48:21.005Z</time></trkpt><trkpt lat="40.08638003304226" lon="9.448094365779898"><ele>1009.0</ele><time>2026-04-29T12:48:22.005Z</time></trkpt><trkpt lat="40.08633331900595" lon="9.448185302180832"><ele>1008.9999999999999</ele><time>2026-04-29T12:48:23.005Z</time></trkpt><trkpt lat="40.08627956197404" lon="9.448272557327927"><ele>1009.0</ele><time>2026-04-29T12:48:24.005Z</time></trkpt><trkpt lat="40.0862190566266" lon="9.44835866843206"><ele>1009.0</ele><time>2026-04-29T12:48:25.005Z</time></trkpt><trkpt lat="40.08614726679322" lon="9.448432851759195"><ele>1009.0</ele><time>2026-04-29T12:48:26.005Z</time></trkpt><trkpt lat="40.08607232814282" lon="9.448487944597165"><ele>1008.9999999999999</ele><time>2026-04-29T12:48:27.005Z</time></trkpt><trkpt lat="40.085993666621555" lon="9.448528944179792"><ele>1009.0</ele><time>2026-04-29T12:48:28.005Z</time></trkpt><trkpt lat="40.08591541109564" lon="9.448550264273658"><ele>1008.9999999999999</ele><time>2026-04-29T12:48:29.005Z</time></trkpt><trkpt lat="40.08583618856978" lon="9.448553800492894"><ele>1009.0</ele><time>2026-04-29T12:48:30.005Z</time></trkpt><trkpt lat="40.08577233779913" lon="9.448539496283415"><ele>1009.0</ele><time>2026-04-29T12:48:31.005Z</time></trkpt><trkpt lat="40.08569888379705" lon="9.448508171003404"><ele>1009.0</ele><time>2026-04-29T12:48:33.005Z</time></trkpt><trkpt lat="40.0856264182937" lon="9.448433096617538"><ele>1008.9999999999999</ele><time>2026-04-29T12:49:25.006Z</time></trkpt><trkpt lat="40.0855173162787" lon="9.448374137231172"><ele>1009.0</ele><time>2026-04-29T12:49:27.006Z</time></trkpt><trkpt lat="40.08544623083598" lon="9.448340411875146"><ele>1009.3333333333333</ele><time>2026-04-29T12:49:28.006Z</time></trkpt><trkpt lat="40.0853685451102" lon="9.448303585340346"><ele>1009.6666666666666</ele><time>2026-04-29T12:49:29.006Z</time></trkpt><trkpt lat="40.085290797527115" lon="9.44828109545068"><ele>1010.0</ele><time>2026-04-29T12:49:30.006Z</time></trkpt><trkpt lat="40.0852158964975" lon="9.448269565731849"><ele>1010.3333333333333</ele><time>2026-04-29T12:49:31.006Z</time></trkpt><trkpt lat="40.085127315147425" lon="9.448265142892504"><ele>1010.6666666666666</ele><time>2026-04-29T12:49:32.006Z</time></trkpt><trkpt lat="40.08505102825832" lon="9.448295010281383"><ele>1011.0</ele><time>2026-04-29T12:49:33.006Z</time></trkpt><trkpt lat="40.084973626166104" lon="9.44833218789686"><ele>1011.1999999999999</ele><time>2026-04-29T12:49:34.006Z</time></trkpt><trkpt lat="40.08488766290646" lon="9.448360967029199"><ele>1011.3999999999999</ele><time>2026-04-29T12:49:35.006Z</time></trkpt><trkpt lat="40.08479450529826" lon="9.448400465540134"><ele>1011.6</ele><time>2026-04-29T12:49:36.006Z</time></trkpt><trkpt lat="40.084693702497844" lon="9.448438363717372"><ele>1011.8</ele><time>2026-04-29T12:49:37.006Z</time></trkpt><trkpt lat="40.084600860001785" lon="9.448477266402536"><ele>1012.0</ele><time>2026-04-29T12:49:38.006Z</time></trkpt><trkpt lat="40.084516996655566" lon="9.448524287157534"><ele>1012.0</ele><time>2026-04-29T12:49:39.006Z</time></trkpt><trkpt lat="40.08444372692902" lon="9.448585010671938"><ele>1012.0</ele><time>2026-04-29T12:49:40.006Z</time></trkpt><trkpt lat="40.084362742055816" lon="9.448659855709215"><ele>1012.0</ele><time>2026-04-29T12:49:41.006Z</time></trkpt><trkpt lat="40.0842769618982" lon="9.448737839903604"><ele>1012.0</ele><time>2026-04-29T12:49:42.006Z</time></trkpt><trkpt lat="40.0841977936027" lon="9.448817541437386"><ele>1012.0</ele><time>2026-04-29T12:49:43.006Z</time></trkpt><trkpt lat="40.08412309972681" lon="9.448879103793463"><ele>1010.857142857143</ele><time>2026-04-29T12:49:44.006Z</time></trkpt><trkpt lat="40.084053795991416" lon="9.448928628905147"><ele>1009.7142857142858</ele><time>2026-04-29T12:49:45.006Z</time></trkpt><trkpt lat="40.083987603803116" lon="9.44896181472502"><ele>1008.5714285714286</ele><time>2026-04-29T12:49:46.006Z</time></trkpt><trkpt lat="40.08392161806868" lon="9.448967783775371"><ele>1007.4285714285714</ele><time>2026-04-29T12:49:47.006Z</time></trkpt><trkpt lat="40.083850918175386" lon="9.44895378247575"><ele>1006.2857142857142</ele><time>2026-04-29T12:49:48.006Z</time></trkpt><trkpt lat="40.083779152217474" lon="9.448922518908741"><ele>1005.142857142857</ele><time>2026-04-29T12:49:49.006Z</time></trkpt><trkpt lat="40.08371283092038" lon="9.448869089773812"><ele>1003.9999999999999</ele><time>2026-04-29T12:49:50.006Z</time></trkpt><trkpt lat="40.08365499956916" lon="9.44879390202346"><ele>1004.0000000000001</ele><time>2026-04-29T12:49:51.006Z</time></trkpt><trkpt lat="40.08360199978366" lon="9.448726144571587"><ele>1004.0</ele><time>2026-04-29T12:49:52.006Z</time></trkpt><trkpt lat="40.083547544344654" lon="9.448675493613056"><ele>1004.0</ele><time>2026-04-29T12:49:53.006Z</time></trkpt><trkpt lat="40.08344042908287" lon="9.448670618572063"><ele>1004.0</ele><time>2026-04-29T12:49:55.006Z</time></trkpt><trkpt lat="40.083334827865784" lon="9.44875852237335"><ele>1004.0000000000001</ele><time>2026-04-29T12:49:57.006Z</time></trkpt><trkpt lat="40.08328749010102" lon="9.448835969542094"><ele>1004.0</ele><time>2026-04-29T12:49:58.006Z</time></trkpt><trkpt lat="40.083239085449144" lon="9.4489214425987"><ele>1004.0000000000001</ele><time>2026-04-29T12:49:59.006Z</time></trkpt><trkpt lat="40.08318414886569" lon="9.448993538831033"><ele>1004.0</ele><time>2026-04-29T12:50:00.006Z</time></trkpt><trkpt lat="40.08313075221912" lon="9.449042761537214"><ele>1004.0</ele><time>2026-04-29T12:50:01.006Z</time></trkpt><trkpt lat="40.08307015184038" lon="9.449074497565455"><ele>1004.0</ele><time>2026-04-29T12:50:02.006Z</time></trkpt><trkpt lat="40.08296461528764" lon="9.449058505966084"><ele>1004.0000000000001</ele><time>2026-04-29T12:50:04.006Z</time></trkpt><trkpt lat="40.08287156952345" lon="9.448993055910517"><ele>1004.0</ele><time>2026-04-29T12:50:06.006Z</time></trkpt><trkpt lat="40.08277967529796" lon="9.44894579406655"><ele>1004.0</ele><time>2026-04-29T12:50:08.006Z</time></trkpt><trkpt lat="40.08267828864812" lon="9.448943058960904"><ele>1004.0000000000001</ele><time>2026-04-29T12:50:10.007Z</time></trkpt><trkpt lat="40.08257515192257" lon="9.448984819914825"><ele>1004.0000000000001</ele><time>2026-04-29T12:50:12.007Z</time></trkpt><trkpt lat="40.082479326437905" lon="9.449019746637621"><ele>1004.0</ele><time>2026-04-29T12:50:14.007Z</time></trkpt><trkpt lat="40.08236021860788" lon="9.449063313247091"><ele>1004.0</ele><time>2026-04-29T12:50:16.007Z</time></trkpt><trkpt lat="40.082302730257325" lon="9.449103901377189"><ele>1002.9999999999999</ele><time>2026-04-29T12:50:17.007Z</time></trkpt><trkpt lat="40.082243122249714" lon="9.44914202762493"><ele>1002.0</ele><time>2026-04-29T12:50:18.007Z</time></trkpt><trkpt lat="40.0821844204193" lon="9.449181293505632"><ele>1000.9999999999999</ele><time>2026-04-29T12:50:19.007Z</time></trkpt><trkpt lat="40.08212465330359" lon="9.44921801270467"><ele>999.9999999999999</ele><time>2026-04-29T12:50:20.007Z</time></trkpt><trkpt lat="40.08206154650261" lon="9.449258301497892"><ele>999.0</ele><time>2026-04-29T12:50:21.007Z</time></trkpt><trkpt lat="40.08199599685973" lon="9.449300769413794"><ele>997.9999999999999</ele><time>2026-04-29T12:50:22.007Z</time></trkpt><trkpt lat="40.08193022050507" lon="9.449354029543368"><ele>996.9999999999999</ele><time>2026-04-29T12:50:23.007Z</time></trkpt><trkpt lat="40.081864350886605" lon="9.449418025678844"><ele>996.9999999999999</ele><time>2026-04-29T12:50:24.007Z</time></trkpt><trkpt lat="40.08180177987333" lon="9.449487401509788"><ele>997.0</ele><time>2026-04-29T12:50:25.007Z</time></trkpt><trkpt lat="40.08174587275045" lon="9.449570049825779"><ele>997.0</ele><time>2026-04-29T12:50:26.007Z</time></trkpt><trkpt lat="40.08169964663548" lon="9.449658449533837"><ele>997.0</ele><time>2026-04-29T12:50:27.007Z</time></trkpt><trkpt lat="40.08165729619443" lon="9.44975301501382"><ele>996.9999999999999</ele><time>2026-04-29T12:50:28.007Z</time></trkpt><trkpt lat="40.081624967477325" lon="9.449844432598256"><ele>997.0</ele><time>2026-04-29T12:50:29.007Z</time></trkpt><trkpt lat="40.081595820914565" lon="9.44992172313873"><ele>996.2</ele><time>2026-04-29T12:50:30.007Z</time></trkpt><trkpt lat="40.08157200736426" lon="9.450077804695976"><ele>995.4000000000001</ele><time>2026-04-29T12:50:32.007Z</time></trkpt><trkpt lat="40.081588835123476" lon="9.450174622338286"><ele>994.5999999999999</ele><time>2026-04-29T12:50:33.007Z</time></trkpt><trkpt lat="40.08161840600638" lon="9.45024993171735"><ele>993.8</ele><time>2026-04-29T12:50:34.007Z</time></trkpt><trkpt lat="40.08164501271781" lon="9.450400762051348"><ele>993.0</ele><time>2026-04-29T12:50:36.007Z</time></trkpt><trkpt lat="40.081636502956314" lon="9.450530296643702"><ele>992.3333333333334</ele><time>2026-04-29T12:50:38.007Z</time></trkpt><trkpt lat="40.08158327917753" lon="9.450662533215315"><ele>991.6666666666667</ele><time>2026-04-29T12:50:40.007Z</time></trkpt><trkpt lat="40.08155429109421" lon="9.4507525051543"><ele>991.0</ele><time>2026-04-29T12:50:41.007Z</time></trkpt><trkpt lat="40.081529407424874" lon="9.45085294830468"><ele>990.3333333333334</ele><time>2026-04-29T12:50:42.007Z</time></trkpt><trkpt lat="40.081490072796" lon="9.450935357812003"><ele>989.6666666666667</ele><time>2026-04-29T12:50:43.007Z</time></trkpt><trkpt lat="40.08143921685199" lon="9.451011245157012"><ele>989.0</ele><time>2026-04-29T12:50:44.007Z</time></trkpt><trkpt lat="40.081376670693984" lon="9.451092131608867"><ele>989.0000000000001</ele><time>2026-04-29T12:50:45.007Z</time></trkpt><trkpt lat="40.0813159052141" lon="9.451176863393874"><ele>989.0</ele><time>2026-04-29T12:50:46.007Z</time></trkpt><trkpt lat="40.08126018640038" lon="9.451256967703204"><ele>989.0</ele><time>2026-04-29T12:50:47.007Z</time></trkpt><trkpt lat="40.08121468078318" lon="9.451320348248798"><ele>989.0</ele><time>2026-04-29T12:50:48.007Z</time></trkpt><trkpt lat="40.08113482974209" lon="9.451431560679048"><ele>989.0000000000001</ele><time>2026-04-29T12:50:50.007Z</time></trkpt><trkpt lat="40.08117915133893" lon="9.451526728287972"><ele>989.0</ele><time>2026-04-29T12:50:53.007Z</time></trkpt><trkpt lat="40.081254762187164" lon="9.451512199116529"><ele>988.6</ele><time>2026-04-29T12:50:55.007Z</time></trkpt><trkpt lat="40.081379764584895" lon="9.451457313633725"><ele>988.2</ele><time>2026-04-29T12:50:57.007Z</time></trkpt><trkpt lat="40.08145936607593" lon="9.451437400740655"><ele>987.8000000000001</ele><time>2026-04-29T12:50:58.007Z</time></trkpt><trkpt lat="40.08153666103689" lon="9.451424272975409"><ele>987.4000000000001</ele><time>2026-04-29T12:50:59.007Z</time></trkpt><trkpt lat="40.081614938336905" lon="9.451424687938962"><ele>987.0</ele><time>2026-04-29T12:51:00.007Z</time></trkpt><trkpt lat="40.08170044940421" lon="9.451430752281107"><ele>986.3333333333334</ele><time>2026-04-29T12:51:01.007Z</time></trkpt><trkpt lat="40.081774086885346" lon="9.451451021899128"><ele>985.6666666666667</ele><time>2026-04-29T12:51:02.007Z</time></trkpt><trkpt lat="40.08183539170508" lon="9.451489785465132"><ele>985.0</ele><time>2026-04-29T12:51:03.007Z</time></trkpt><trkpt lat="40.08188617971707" lon="9.4515462989486"><ele>984.3333333333334</ele><time>2026-04-29T12:51:04.007Z</time></trkpt><trkpt lat="40.081938706570995" lon="9.451620303076425"><ele>983.6666666666667</ele><time>2026-04-29T12:51:05.007Z</time></trkpt><trkpt lat="40.08199663032481" lon="9.451701908874877"><ele>983.0</ele><time>2026-04-29T12:51:06.007Z</time></trkpt><trkpt lat="40.082069639545374" lon="9.451778608384801"><ele>983.0000000000001</ele><time>2026-04-29T12:51:07.007Z</time></trkpt><trkpt lat="40.08214415151989" lon="9.45184708573303"><ele>983.0</ele><time>2026-04-29T12:51:08.007Z</time></trkpt><trkpt lat="40.082217158842205" lon="9.451912070642479"><ele>983.0</ele><time>2026-04-29T12:51:09.007Z</time></trkpt><trkpt lat="40.0822919927144" lon="9.451971055101826"><ele>983.0</ele><time>2026-04-29T12:51:10.007Z</time></trkpt><trkpt lat="40.082354220952084" lon="9.452022374785049"><ele>983.0000000000001</ele><time>2026-04-29T12:51:11.007Z</time></trkpt><trkpt lat="40.08241054962936" lon="9.452069529300994"><ele>983.0</ele><time>2026-04-29T12:51:12.007Z</time></trkpt><trkpt lat="40.08247140604134" lon="9.452136568848749"><ele>982.2</ele><time>2026-04-29T12:51:14.007Z</time></trkpt><trkpt lat="40.08252890623427" lon="9.45218224176744"><ele>981.4</ele><time>2026-04-29T12:52:25.008Z</time></trkpt><trkpt lat="40.08259807424815" lon="9.452225364022356"><ele>980.6000000000001</ele><time>2026-04-29T12:52:27.008Z</time></trkpt><trkpt lat="40.082693279645405" lon="9.452283052109946"><ele>979.8000000000001</ele><time>2026-04-29T12:52:29.008Z</time></trkpt><trkpt lat="40.08281783226425" lon="9.452357432089295"><ele>979.0</ele><time>2026-04-29T12:52:31.008Z</time></trkpt><trkpt lat="40.08289823247867" lon="9.452404141633192"><ele>978.9999999999999</ele><time>2026-04-29T12:52:32.008Z</time></trkpt><trkpt lat="40.08297125682726" lon="9.452446859158114"><ele>979.0</ele><time>2026-04-29T12:52:33.008Z</time></trkpt><trkpt lat="40.08304989854598" lon="9.452491502993999"><ele>979.0</ele><time>2026-04-29T12:52:34.008Z</time></trkpt><trkpt lat="40.083121036485" lon="9.45253085027153"><ele>979.0</ele><time>2026-04-29T12:52:35.008Z</time></trkpt><trkpt lat="40.08319071042936" lon="9.452581515143772"><ele>978.9999999999999</ele><time>2026-04-29T12:52:36.008Z</time></trkpt><trkpt lat="40.08326102392129" lon="9.452628264676411"><ele>979.0</ele><time>2026-04-29T12:52:37.008Z</time></trkpt><trkpt lat="40.08333989871619" lon="9.452662571371068"><ele>979.3333333333333</ele><time>2026-04-29T12:52:38.008Z</time></trkpt><trkpt lat="40.08341417073153" lon="9.452682692977719"><ele>979.6666666666666</ele><time>2026-04-29T12:52:39.008Z</time></trkpt><trkpt lat="40.083497142898175" lon="9.452697886738427"><ele>980.0</ele><time>2026-04-29T12:52:40.008Z</time></trkpt><trkpt lat="40.083577312502584" lon="9.452713136362863"><ele>980.3333333333333</ele><time>2026-04-29T12:52:41.008Z</time></trkpt><trkpt lat="40.083654781529816" lon="9.452723003619708"><ele>980.6666666666666</ele><time>2026-04-29T12:52:42.008Z</time></trkpt><trkpt lat="40.08373258335024" lon="9.45272828583666"><ele>981.0</ele><time>2026-04-29T12:52:43.008Z</time></trkpt><trkpt lat="40.08380586691997" lon="9.452734667277568"><ele>981.0</ele><time>2026-04-29T12:52:44.008Z</time></trkpt><trkpt lat="40.08388632317822" lon="9.452723185629686"><ele>981.0</ele><time>2026-04-29T12:52:45.008Z</time></trkpt><trkpt lat="40.08397006948755" lon="9.452698202068069"><ele>981.0</ele><time>2026-04-29T12:52:46.008Z</time></trkpt><trkpt lat="40.08405390398121" lon="9.452656565410365"><ele>981.0</ele><time>2026-04-29T12:52:47.008Z</time></trkpt><trkpt lat="40.08413189539665" lon="9.452611141876462"><ele>981.0</ele><time>2026-04-29T12:52:48.008Z</time></trkpt><trkpt lat="40.08419742009477" lon="9.452565730048713"><ele>981.0</ele><time>2026-04-29T12:52:49.008Z</time></trkpt><trkpt lat="40.08426139723219" lon="9.452528786803335"><ele>980.8333333333334</ele><time>2026-04-29T12:52:50.008Z</time></trkpt><trkpt lat="40.084383005207755" lon="9.452495362697656"><ele>980.6666666666667</ele><time>2026-04-29T12:52:52.008Z</time></trkpt><trkpt lat="40.08445175439699" lon="9.452501466632857"><ele>980.5</ele><time>2026-04-29T12:52:53.008Z</time></trkpt><trkpt lat="40.084532948409816" lon="9.452512384431964"><ele>980.3333333333334</ele><time>2026-04-29T12:52:54.008Z</time></trkpt><trkpt lat="40.08460303146068" lon="9.452512899867411"><ele>980.1666666666667</ele><time>2026-04-29T12:52:55.008Z</time></trkpt><trkpt lat="40.084677409259605" lon="9.452506138673881"><ele>980.0</ele><time>2026-04-29T12:52:56.008Z</time></trkpt><trkpt lat="40.08475387095519" lon="9.45249434463867"><ele>980.0000000000001</ele><time>2026-04-29T12:52:57.008Z</time></trkpt><trkpt lat="40.08482997041183" lon="9.452486572404514"><ele>980.0</ele><time>2026-04-29T12:52:58.008Z</time></trkpt><trkpt lat="40.08490010192658" lon="9.452481356302988"><ele>980.0</ele><time>2026-04-29T12:52:59.008Z</time></trkpt><trkpt lat="40.085007082800615" lon="9.452464079614874"><ele>980.0</ele><time>2026-04-29T12:53:01.008Z</time></trkpt><trkpt lat="40.08507345185951" lon="9.452470356124431"><ele>980.0000000000001</ele><time>2026-04-29T12:53:03.008Z</time></trkpt><trkpt lat="40.085133762549475" lon="9.452529532652052"><ele>980.0</ele><time>2026-04-29T12:53:06.008Z</time></trkpt><trkpt lat="40.085162979517584" lon="9.452610171363695"><ele>978.8333333333334</ele><time>2026-04-29T12:53:08.008Z</time></trkpt><trkpt lat="40.08521271027934" lon="9.452684965939461"><ele>977.6666666666667</ele><time>2026-04-29T12:53:10.008Z</time></trkpt><trkpt lat="40.085275290135385" lon="9.452765171609117"><ele>976.5</ele><time>2026-04-29T12:53:12.009Z</time></trkpt><trkpt lat="40.08533907784225" lon="9.452785931227208"><ele>975.3333333333333</ele><time>2026-04-29T12:53:15.009Z</time></trkpt><trkpt lat="40.0854352110816" lon="9.452746027851546"><ele>974.1666666666666</ele><time>2026-04-29T12:54:11.009Z</time></trkpt><trkpt lat="40.085498970312386" lon="9.452727736389326"><ele>973.0</ele><time>2026-04-29T12:54:12.009Z</time></trkpt><trkpt lat="40.08557305277672" lon="9.452720509911208"><ele>972.9999999999999</ele><time>2026-04-29T12:54:13.009Z</time></trkpt><trkpt lat="40.085647208766936" lon="9.452716015941965"><ele>973.0</ele><time>2026-04-29T12:54:14.009Z</time></trkpt><trkpt lat="40.08573626687524" lon="9.452709792306543"><ele>973.0</ele><time>2026-04-29T12:54:15.009Z</time></trkpt><trkpt lat="40.08583149745631" lon="9.452704495484966"><ele>973.0</ele><time>2026-04-29T12:54:16.009Z</time></trkpt><trkpt lat="40.08591856583606" lon="9.452705250994812"><ele>972.9999999999999</ele><time>2026-04-29T12:54:17.009Z</time></trkpt><trkpt lat="40.086003595265716" lon="9.452708651454591"><ele>973.0</ele><time>2026-04-29T12:54:18.009Z</time></trkpt><trkpt lat="40.08609166629148" lon="9.45272132679728"><ele>972.8571428571429</ele><time>2026-04-29T12:54:19.009Z</time></trkpt><trkpt lat="40.08617093665632" lon="9.452753941584817"><ele>972.7142857142858</ele><time>2026-04-29T12:54:20.009Z</time></trkpt><trkpt lat="40.086237073701234" lon="9.452793735259416"><ele>972.5714285714286</ele><time>2026-04-29T12:54:21.009Z</time></trkpt><trkpt lat="40.08628996484958" lon="9.45284194012447"><ele>972.4285714285714</ele><time>2026-04-29T12:54:22.009Z</time></trkpt><trkpt lat="40.08634029592485" lon="9.452898331581379"><ele>972.2857142857143</ele><time>2026-04-29T12:54:23.009Z</time></trkpt><trkpt lat="40.08639709445699" lon="9.452955027878199"><ele>972.1428571428571</ele><time>2026-04-29T12:54:24.009Z</time></trkpt><trkpt lat="40.08645925527257" lon="9.453007719222562"><ele>972.0</ele><time>2026-04-29T12:54:25.009Z</time></trkpt><trkpt lat="40.08653321445149" lon="9.453052777130814"><ele>972.6666666666666</ele><time>2026-04-29T12:54:26.009Z</time></trkpt><trkpt lat="40.08661419655055" lon="9.45310507152081"><ele>973.3333333333333</ele><time>2026-04-29T12:54:27.009Z</time></trkpt><trkpt lat="40.08669557034769" lon="9.453158929373473"><ele>974.0</ele><time>2026-04-29T12:54:28.009Z</time></trkpt><trkpt lat="40.08676429198802" lon="9.453206475096247"><ele>974.6666666666666</ele><time>2026-04-29T12:54:29.009Z</time></trkpt><trkpt lat="40.086829419665676" lon="9.453242789494382"><ele>975.3333333333333</ele><time>2026-04-29T12:54:30.009Z</time></trkpt><trkpt lat="40.086905663903" lon="9.453283718009045"><ele>976.0</ele><time>2026-04-29T12:54:31.009Z</time></trkpt><trkpt lat="40.08697199293657" lon="9.453336808105814"><ele>975.9999999999999</ele><time>2026-04-29T12:54:32.009Z</time></trkpt><trkpt lat="40.08703449381799" lon="9.453404658471914"><ele>976.0</ele><time>2026-04-29T12:54:33.009Z</time></trkpt><trkpt lat="40.087095858206055" lon="9.4534792941359"><ele>976.0</ele><time>2026-04-29T12:54:34.009Z</time></trkpt><trkpt lat="40.08715958195014" lon="9.453556871147958"><ele>976.0</ele><time>2026-04-29T12:54:35.009Z</time></trkpt><trkpt lat="40.08722178628111" lon="9.453628656357774"><ele>975.9999999999999</ele><time>2026-04-29T12:54:36.009Z</time></trkpt><trkpt lat="40.08729043298458" lon="9.453704425182547"><ele>976.0</ele><time>2026-04-29T12:54:37.009Z</time></trkpt><trkpt lat="40.08735765796951" lon="9.45378789576855"><ele>976.4</ele><time>2026-04-29T12:54:38.009Z</time></trkpt><trkpt lat="40.08743816336654" lon="9.453871211320049"><ele>976.8</ele><time>2026-04-29T12:54:39.009Z</time></trkpt><trkpt lat="40.087515693273836" lon="9.453947479156083"><ele>977.1999999999999</ele><time>2026-04-29T12:54:40.009Z</time></trkpt><trkpt lat="40.087590915823505" lon="9.454011960442502"><ele>977.5999999999999</ele><time>2026-04-29T12:54:41.009Z</time></trkpt><trkpt lat="40.0876617592142" lon="9.454058155882324"><ele>978.0</ele><time>2026-04-29T12:54:42.01Z</time></trkpt><trkpt lat="40.08773922464968" lon="9.454099947801012"><ele>978.0</ele><time>2026-04-29T12:54:43.01Z</time></trkpt><trkpt lat="40.08781326136222" lon="9.454149536325463"><ele>978.0</ele><time>2026-04-29T12:54:44.01Z</time></trkpt><trkpt lat="40.08787929849563" lon="9.454195509839886"><ele>978.0</ele><time>2026-04-29T12:54:45.01Z</time></trkpt><trkpt lat="40.087951204470436" lon="9.454233054312555"><ele>978.0</ele><time>2026-04-29T12:54:46.01Z</time></trkpt><trkpt lat="40.08802841908106" lon="9.454250699742483"><ele>978.0</ele><time>2026-04-29T12:54:47.01Z</time></trkpt><trkpt lat="40.088099124882575" lon="9.454270842734243"><ele>978.0</ele><time>2026-04-29T12:54:48.01Z</time></trkpt><trkpt lat="40.08816338535834" lon="9.454307811167833"><ele>978.0</ele><time>2026-04-29T12:54:49.01Z</time></trkpt><trkpt lat="40.088233119751266" lon="9.454362855248393"><ele>978.0</ele><time>2026-04-29T12:54:50.01Z</time></trkpt><trkpt lat="40.08829703971608" lon="9.454418703136584"><ele>978.0</ele><time>2026-04-29T12:54:51.01Z</time></trkpt><trkpt lat="40.088370828705756" lon="9.45446819204293"><ele>978.0</ele><time>2026-04-29T12:54:52.01Z</time></trkpt><trkpt lat="40.08845786245639" lon="9.454505889869477"><ele>978.0</ele><time>2026-04-29T12:54:53.01Z</time></trkpt><trkpt lat="40.088536938492055" lon="9.454528781944864"><ele>978.0</ele><time>2026-04-29T12:54:54.01Z</time></trkpt><trkpt lat="40.088623865810106" lon="9.454554149380604"><ele>976.1666666666666</ele><time>2026-04-29T12:54:55.01Z</time></trkpt><trkpt lat="40.088705689268245" lon="9.454572683837045"><ele>974.3333333333333</ele><time>2026-04-29T12:54:56.01Z</time></trkpt><trkpt lat="40.08877862661717" lon="9.45457783060606"><ele>972.5</ele><time>2026-04-29T12:54:57.01Z</time></trkpt><trkpt lat="40.08885792813991" lon="9.45456497775637"><ele>970.6666666666666</ele><time>2026-04-29T12:54:58.01Z</time></trkpt><trkpt lat="40.08893843172893" lon="9.454545360658845"><ele>968.8333333333333</ele><time>2026-04-29T12:54:59.01Z</time></trkpt><trkpt lat="40.08901675040389" lon="9.454505626855584"><ele>967.0</ele><time>2026-04-29T12:55:00.01Z</time></trkpt><trkpt lat="40.089093797210566" lon="9.454450928198805"><ele>966.8333333333333</ele><time>2026-04-29T12:55:01.01Z</time></trkpt><trkpt lat="40.08916341284558" lon="9.454384409012924"><ele>966.6666666666666</ele><time>2026-04-29T12:55:02.01Z</time></trkpt><trkpt lat="40.08923366484656" lon="9.4543204054793"><ele>966.5</ele><time>2026-04-29T12:55:03.01Z</time></trkpt><trkpt lat="40.089304699576566" lon="9.454275400422835"><ele>966.3333333333333</ele><time>2026-04-29T12:55:04.01Z</time></trkpt><trkpt lat="40.08937047760716" lon="9.454250340789795"><ele>966.1666666666666</ele><time>2026-04-29T12:55:05.01Z</time></trkpt><trkpt lat="40.08943778881113" lon="9.45426186188657"><ele>966.0</ele><time>2026-04-29T12:55:06.01Z</time></trkpt><trkpt lat="40.089519943849055" lon="9.454243967058773"><ele>966.0</ele><time>2026-04-29T12:55:07.01Z</time></trkpt><trkpt lat="40.08960498698401" lon="9.454212679720529"><ele>965.9999999999999</ele><time>2026-04-29T12:55:08.01Z</time></trkpt><trkpt lat="40.08969592191913" lon="9.45418380952536"><ele>965.9999999999999</ele><time>2026-04-29T12:55:09.01Z</time></trkpt><trkpt lat="40.089792021302536" lon="9.454160392027392"><ele>966.0</ele><time>2026-04-29T12:55:10.01Z</time></trkpt><trkpt lat="40.08988329636921" lon="9.454142844706263"><ele>966.0</ele><time>2026-04-29T12:55:11.01Z</time></trkpt><trkpt lat="40.08998110105624" lon="9.454116633800744"><ele>965.8</ele><time>2026-04-29T12:55:12.01Z</time></trkpt><trkpt lat="40.0900717264821" lon="9.454087344396333"><ele>965.5999999999999</ele><time>2026-04-29T12:55:13.01Z</time></trkpt><trkpt lat="40.0901705067455" lon="9.454076546894248"><ele>965.4</ele><time>2026-04-29T12:55:14.01Z</time></trkpt><trkpt lat="40.09027045749842" lon="9.454078994739405"><ele>965.2</ele><time>2026-04-29T12:55:15.01Z</time></trkpt><trkpt lat="40.0903765420279" lon="9.454086225317521"><ele>965.0</ele><time>2026-04-29T12:55:16.01Z</time></trkpt><trkpt lat="40.090485834769055" lon="9.454098587851055"><ele>965.0000000000001</ele><time>2026-04-29T12:55:17.01Z</time></trkpt><trkpt lat="40.090577771558046" lon="9.454112954404648"><ele>965.0</ele><time>2026-04-29T12:55:18.01Z</time></trkpt><trkpt lat="40.09066686459927" lon="9.45411867857783"><ele>965.0</ele><time>2026-04-29T12:55:19.01Z</time></trkpt><trkpt lat="40.090747573553955" lon="9.454140033668308"><ele>965.0</ele><time>2026-04-29T12:55:20.01Z</time></trkpt><trkpt lat="40.09081856719265" lon="9.454162766358502"><ele>965.0000000000001</ele><time>2026-04-29T12:55:21.01Z</time></trkpt><trkpt lat="40.09089442447103" lon="9.454185301035634"><ele>965.0</ele><time>2026-04-29T12:55:22.01Z</time></trkpt><trkpt lat="40.09098309285089" lon="9.454191206745074"><ele>964.4</ele><time>2026-04-29T12:55:23.01Z</time></trkpt><trkpt lat="40.09108508047721" lon="9.454201873762782"><ele>963.8</ele><time>2026-04-29T12:55:24.01Z</time></trkpt><trkpt lat="40.091194019648036" lon="9.454218274506527"><ele>963.2</ele><time>2026-04-29T12:55:25.01Z</time></trkpt><trkpt lat="40.0912994974468" lon="9.454240470994002"><ele>962.6</ele><time>2026-04-29T12:55:26.01Z</time></trkpt><trkpt lat="40.091403007366615" lon="9.454261278053258"><ele>962.0</ele><time>2026-04-29T12:55:27.01Z</time></trkpt><trkpt lat="40.09151602695172" lon="9.454281815928107"><ele>961.8</ele><time>2026-04-29T12:55:28.01Z</time></trkpt><trkpt lat="40.09162513661614" lon="9.454290036192083"><ele>961.6</ele><time>2026-04-29T12:55:29.01Z</time></trkpt><trkpt lat="40.0917348009721" lon="9.454301705563791"><ele>961.3999999999999</ele><time>2026-04-29T12:55:30.01Z</time></trkpt><trkpt lat="40.09184114291736" lon="9.45431364719119"><ele>961.1999999999999</ele><time>2026-04-29T12:55:31.01Z</time></trkpt><trkpt lat="40.0919504632844" lon="9.454328551472022"><ele>961.0</ele><time>2026-04-29T12:55:32.01Z</time></trkpt><trkpt lat="40.09205610787398" lon="9.454348060534098"><ele>961.0</ele><time>2026-04-29T12:55:33.01Z</time></trkpt><trkpt lat="40.09215307828126" lon="9.454369499116115"><ele>960.9999999999999</ele><time>2026-04-29T12:55:34.01Z</time></trkpt><trkpt lat="40.09224412243706" lon="9.454392275350985"><ele>960.9999999999999</ele><time>2026-04-29T12:55:35.01Z</time></trkpt><trkpt lat="40.092345613704346" lon="9.454425461557326"><ele>961.0</ele><time>2026-04-29T12:55:36.01Z</time></trkpt><trkpt lat="40.09243412317702" lon="9.454440976590522"><ele>961.0</ele><time>2026-04-29T12:55:37.01Z</time></trkpt><trkpt lat="40.092507044047416" lon="9.45444161642893"><ele>960.6666666666666</ele><time>2026-04-29T12:55:38.01Z</time></trkpt><trkpt lat="40.09263279186879" lon="9.454469071403146"><ele>960.3333333333333</ele><time>2026-04-29T12:55:40.01Z</time></trkpt><trkpt lat="40.092700021645925" lon="9.454495565309308"><ele>960.0</ele><time>2026-04-29T12:55:41.01Z</time></trkpt><trkpt lat="40.09276732513139" lon="9.454525878234818"><ele>959.6666666666667</ele><time>2026-04-29T12:55:42.01Z</time></trkpt><trkpt lat="40.09284425690012" lon="9.45455482015161"><ele>959.3333333333334</ele><time>2026-04-29T12:55:43.01Z</time></trkpt><trkpt lat="40.092923851460974" lon="9.454578404964806"><ele>959.0</ele><time>2026-04-29T12:55:44.01Z</time></trkpt><trkpt lat="40.09300535963122" lon="9.454600863423588"><ele>959.2</ele><time>2026-04-29T12:55:45.01Z</time></trkpt><trkpt lat="40.093100236546654" lon="9.454634355606238"><ele>959.4000000000001</ele><time>2026-04-29T12:55:46.01Z</time></trkpt><trkpt lat="40.09318779855935" lon="9.454673972945065"><ele>959.6</ele><time>2026-04-29T12:55:47.01Z</time></trkpt><trkpt lat="40.09326601531664" lon="9.454714754166208"><ele>959.8</ele><time>2026-04-29T12:55:48.01Z</time></trkpt><trkpt lat="40.093349756416195" lon="9.454754446019999"><ele>960.0</ele><time>2026-04-29T12:55:49.01Z</time></trkpt><trkpt lat="40.093434884861296" lon="9.454790222479755"><ele>959.4</ele><time>2026-04-29T12:55:50.01Z</time></trkpt><trkpt lat="40.093525220157076" lon="9.454824039049157"><ele>958.8</ele><time>2026-04-29T12:55:51.01Z</time></trkpt><trkpt lat="40.09361397151594" lon="9.454850242667884"><ele>958.2</ele><time>2026-04-29T12:55:52.01Z</time></trkpt><trkpt lat="40.093706203912674" lon="9.454870018168624"><ele>957.6</ele><time>2026-04-29T12:55:53.01Z</time></trkpt><trkpt lat="40.09379480427558" lon="9.454893431592449"><ele>957.0</ele><time>2026-04-29T12:55:54.01Z</time></trkpt><trkpt lat="40.093879735729004" lon="9.454920072735952"><ele>957.0</ele><time>2026-04-29T12:55:55.01Z</time></trkpt><trkpt lat="40.09395934246844" lon="9.4549567684545"><ele>957.0</ele><time>2026-04-29T12:55:56.01Z</time></trkpt><trkpt lat="40.09404150551331" lon="9.455003930701189"><ele>957.0</ele><time>2026-04-29T12:55:57.01Z</time></trkpt><trkpt lat="40.09412191490225" lon="9.455061394329228"><ele>957.0</ele><time>2026-04-29T12:55:58.01Z</time></trkpt><trkpt lat="40.09420896190892" lon="9.455128143614457"><ele>957.0</ele><time>2026-04-29T12:55:59.01Z</time></trkpt><trkpt lat="40.09430060344295" lon="9.455186443210199"><ele>956.8</ele><time>2026-04-29T12:56:00.01Z</time></trkpt><trkpt lat="40.0943926554097" lon="9.455242348380564"><ele>956.6</ele><time>2026-04-29T12:56:01.01Z</time></trkpt><trkpt lat="40.09447694233373" lon="9.455296996344313"><ele>956.3999999999999</ele><time>2026-04-29T12:56:02.01Z</time></trkpt><trkpt lat="40.09455636732892" lon="9.455356585471385"><ele>956.1999999999999</ele><time>2026-04-29T12:56:03.01Z</time></trkpt><trkpt lat="40.09462984587885" lon="9.4554281376199"><ele>956.0</ele><time>2026-04-29T12:56:04.01Z</time></trkpt><trkpt lat="40.09469200886062" lon="9.455518340139164"><ele>956.0</ele><time>2026-04-29T12:56:05.01Z</time></trkpt><trkpt lat="40.09474955506447" lon="9.455613098101326"><ele>955.9999999999999</ele><time>2026-04-29T12:56:06.01Z</time></trkpt><trkpt lat="40.09483680579475" lon="9.455721851858629"><ele>955.9999999999999</ele><time>2026-04-29T12:56:07.01Z</time></trkpt><trkpt lat="40.09492996722061" lon="9.455807675068561"><ele>956.0</ele><time>2026-04-29T12:56:08.01Z</time></trkpt><trkpt lat="40.09500664773988" lon="9.455893146144584"><ele>956.0</ele><time>2026-04-29T12:56:09.01Z</time></trkpt><trkpt lat="40.09506913442004" lon="9.455979261697761"><ele>955.8</ele><time>2026-04-29T12:56:10.01Z</time></trkpt><trkpt lat="40.09512881724971" lon="9.456075452788054"><ele>955.5999999999999</ele><time>2026-04-29T12:56:11.01Z</time></trkpt><trkpt lat="40.0951836000234" lon="9.456184208047642"><ele>955.4</ele><time>2026-04-29T12:56:12.01Z</time></trkpt><trkpt lat="40.09525258928748" lon="9.456288806525015"><ele>955.2</ele><time>2026-04-29T12:56:13.011Z</time></trkpt><trkpt lat="40.09532240776622" lon="9.456373067172787"><ele>955.0</ele><time>2026-04-29T12:56:14.011Z</time></trkpt><trkpt lat="40.095386349570944" lon="9.456455644964969"><ele>954.9999999999999</ele><time>2026-04-29T12:56:15.011Z</time></trkpt><trkpt lat="40.09544029143789" lon="9.456536633420559"><ele>955.0</ele><time>2026-04-29T12:56:16.011Z</time></trkpt><trkpt lat="40.095479690009135" lon="9.456623634925728"><ele>955.0</ele><time>2026-04-29T12:56:17.011Z</time></trkpt><trkpt lat="40.095496301929394" lon="9.45671081106605"><ele>955.0</ele><time>2026-04-29T12:56:18.011Z</time></trkpt><trkpt lat="40.09550218676149" lon="9.456797384595815"><ele>954.9999999999999</ele><time>2026-04-29T12:56:19.011Z</time></trkpt><trkpt lat="40.095502201234375" lon="9.456883687843657"><ele>955.0</ele><time>2026-04-29T12:56:20.011Z</time></trkpt><trkpt lat="40.09546411762249" lon="9.457038219735395"><ele>955.0</ele><time>2026-04-29T12:56:22.011Z</time></trkpt><trkpt lat="40.09541637437459" lon="9.457113168111144"><ele>955.0</ele><time>2026-04-29T12:56:23.011Z</time></trkpt><trkpt lat="40.095344953904764" lon="9.457201912183134"><ele>955.0</ele><time>2026-04-29T12:56:24.011Z</time></trkpt><trkpt lat="40.09526895339012" lon="9.457322749647476"><ele>955.0</ele><time>2026-04-29T12:56:25.011Z</time></trkpt><trkpt lat="40.09520651703751" lon="9.457451340698062"><ele>955.0</ele><time>2026-04-29T12:56:26.011Z</time></trkpt><trkpt lat="40.095141818948576" lon="9.457612700996396"><ele>955.0</ele><time>2026-04-29T12:56:27.011Z</time></trkpt><trkpt lat="40.09508042746014" lon="9.45779132100968"><ele>955.0</ele><time>2026-04-29T12:56:28.011Z</time></trkpt><trkpt lat="40.095040185648664" lon="9.457957139522433"><ele>955.0</ele><time>2026-04-29T12:56:29.011Z</time></trkpt><trkpt lat="40.095008143572066" lon="9.458109077235926"><ele>955.0</ele><time>2026-04-29T12:56:30.011Z</time></trkpt><trkpt lat="40.094980001101746" lon="9.458262310514467"><ele>955.0</ele><time>2026-04-29T12:56:31.011Z</time></trkpt><trkpt lat="40.09496828369347" lon="9.458431693688755"><ele>955.0</ele><time>2026-04-29T12:56:32.011Z</time></trkpt><trkpt lat="40.09496007827621" lon="9.458619856337627"><ele>955.0</ele><time>2026-04-29T12:56:33.011Z</time></trkpt><trkpt lat="40.09495739632576" lon="9.458811521264652"><ele>955.0</ele><time>2026-04-29T12:56:34.011Z</time></trkpt><trkpt lat="40.0949514467154" lon="9.459015569131575"><ele>955.6666666666666</ele><time>2026-04-29T12:56:35.011Z</time></trkpt><trkpt lat="40.094919544261664" lon="9.459212222947675"><ele>956.3333333333333</ele><time>2026-04-29T12:56:36.011Z</time></trkpt><trkpt lat="40.095063801892756" lon="9.45896542015719"><ele>957.0</ele><time>2026-04-29T12:56:37.011Z</time></trkpt><trkpt lat="40.09507590249151" lon="9.459101214507454"><ele>957.0</ele><time>2026-04-29T12:56:38.011Z</time></trkpt><trkpt lat="40.09509518216679" lon="9.459219465223907"><ele>957.0</ele><time>2026-04-29T12:56:39.011Z</time></trkpt><trkpt lat="40.09510712562702" lon="9.459316082119289"><ele>957.0</ele><time>2026-04-29T12:56:40.011Z</time></trkpt><trkpt lat="40.09509681225121" lon="9.459402879728101"><ele>957.0</ele><time>2026-04-29T12:56:41.011Z</time></trkpt><trkpt lat="40.095061449061625" lon="9.45949160755205"><ele>957.0</ele><time>2026-04-29T12:56:42.011Z</time></trkpt><trkpt lat="40.09501765430388" lon="9.459581989843702"><ele>957.0</ele><time>2026-04-29T12:56:43.011Z</time></trkpt><trkpt lat="40.09498493411908" lon="9.459681539347562"><ele>957.6</ele><time>2026-04-29T12:56:44.011Z</time></trkpt><trkpt lat="40.09494133527976" lon="9.459780358397508"><ele>958.2</ele><time>2026-04-29T12:56:45.011Z</time></trkpt><trkpt lat="40.09488005983909" lon="9.459889422535033"><ele>958.8</ele><time>2026-04-29T12:56:46.011Z</time></trkpt><trkpt lat="40.09481493147175" lon="9.460010487933072"><ele>959.4</ele><time>2026-04-29T12:56:47.011Z</time></trkpt><trkpt lat="40.094744368868916" lon="9.460141573520756"><ele>960.0</ele><time>2026-04-29T12:56:48.011Z</time></trkpt><trkpt lat="40.09467279620994" lon="9.460272430512108"><ele>960.0</ele><time>2026-04-29T12:56:49.011Z</time></trkpt><trkpt lat="40.09460065609989" lon="9.460405531251002"><ele>960.0</ele><time>2026-04-29T12:56:50.011Z</time></trkpt><trkpt lat="40.09454186202743" lon="9.460533388947459"><ele>960.0</ele><time>2026-04-29T12:56:51.011Z</time></trkpt><trkpt lat="40.094518596495256" lon="9.460652541610623"><ele>960.0</ele><time>2026-04-29T12:56:52.011Z</time></trkpt><trkpt lat="40.09450709138846" lon="9.460772037111402"><ele>960.0</ele><time>2026-04-29T12:56:53.011Z</time></trkpt><trkpt lat="40.09451732386548" lon="9.460887620409032"><ele>961.2</ele><time>2026-04-29T12:56:54.011Z</time></trkpt><trkpt lat="40.09454765135256" lon="9.461009768447633"><ele>962.4</ele><time>2026-04-29T12:56:55.011Z</time></trkpt><trkpt lat="40.0945947394579" lon="9.461131951432009"><ele>963.5999999999999</ele><time>2026-04-29T12:56:56.011Z</time></trkpt><trkpt lat="40.094653451347746" lon="9.461252116376368"><ele>964.8</ele><time>2026-04-29T12:56:57.011Z</time></trkpt><trkpt lat="40.09472149486879" lon="9.461371904816504"><ele>966.0</ele><time>2026-04-29T12:56:58.011Z</time></trkpt><trkpt lat="40.094806633338955" lon="9.461478387999245"><ele>968.75</ele><time>2026-04-29T12:56:59.011Z</time></trkpt><trkpt lat="40.09494254010483" lon="9.46156249789431"><ele>971.5</ele><time>2026-04-29T12:57:00.011Z</time></trkpt><trkpt lat="40.09506191791555" lon="9.461634865983003"><ele>974.25</ele><time>2026-04-29T12:57:01.011Z</time></trkpt><trkpt lat="40.09518123243501" lon="9.461705935389373"><ele>977.0</ele><time>2026-04-29T12:57:02.011Z</time></trkpt><trkpt lat="40.09529900086837" lon="9.461780517194525"><ele>977.0</ele><time>2026-04-29T12:57:03.011Z</time></trkpt><trkpt lat="40.095416206616655" lon="9.46185329392007"><ele>977.0</ele><time>2026-04-29T12:57:04.011Z</time></trkpt><trkpt lat="40.09553089272503" lon="9.461925490985044"><ele>977.0</ele><time>2026-04-29T12:57:05.011Z</time></trkpt><trkpt lat="40.095643985335066" lon="9.462000788026312"><ele>977.0</ele><time>2026-04-29T12:57:06.011Z</time></trkpt><trkpt lat="40.095753920077186" lon="9.462077851572982"><ele>979.4000000000001</ele><time>2026-04-29T12:57:07.011Z</time></trkpt><trkpt lat="40.09586069391414" lon="9.46215057372586"><ele>981.8000000000001</ele><time>2026-04-29T12:57:08.011Z</time></trkpt><trkpt lat="40.09596563368553" lon="9.46221944224825"><ele>984.2</ele><time>2026-04-29T12:57:09.011Z</time></trkpt><trkpt lat="40.09605923604388" lon="9.462284842295519"><ele>986.6</ele><time>2026-04-29T12:57:10.011Z</time></trkpt><trkpt lat="40.09614290555625" lon="9.46234891378254"><ele>989.0</ele><time>2026-04-29T12:57:11.011Z</time></trkpt><trkpt lat="40.096214586521185" lon="9.46243776212805"><ele>989.0</ele><time>2026-04-29T12:57:12.011Z</time></trkpt><trkpt lat="40.09627435189891" lon="9.462556046548935"><ele>989.0</ele><time>2026-04-29T12:57:13.011Z</time></trkpt><trkpt lat="40.09632263790842" lon="9.462698018818049"><ele>989.0</ele><time>2026-04-29T12:57:14.011Z</time></trkpt><trkpt lat="40.09637018948396" lon="9.462842874280101"><ele>989.0</ele><time>2026-04-29T12:57:15.011Z</time></trkpt><trkpt lat="40.096425483519916" lon="9.462975032768046"><ele>989.2</ele><time>2026-04-29T12:57:16.011Z</time></trkpt><trkpt lat="40.09649014502944" lon="9.463084901487086"><ele>989.4000000000001</ele><time>2026-04-29T12:57:17.011Z</time></trkpt><trkpt lat="40.09656485496386" lon="9.463169555161194"><ele>989.6</ele><time>2026-04-29T12:57:18.011Z</time></trkpt><trkpt lat="40.09664546900081" lon="9.463223176288082"><ele>989.8</ele><time>2026-04-29T12:57:19.011Z</time></trkpt><trkpt lat="40.09673911232797" lon="9.463251859079394"><ele>990.0</ele><time>2026-04-29T12:57:20.011Z</time></trkpt><trkpt lat="40.09684985017181" lon="9.463269265432114"><ele>990.0</ele><time>2026-04-29T12:57:21.011Z</time></trkpt><trkpt lat="40.09696818415727" lon="9.463287572472655"><ele>990.0</ele><time>2026-04-29T12:57:22.011Z</time></trkpt><trkpt lat="40.09708399050274" lon="9.463323038347275"><ele>990.0</ele><time>2026-04-29T12:57:23.011Z</time></trkpt><trkpt lat="40.09717971427907" lon="9.463386865998656"><ele>990.0</ele><time>2026-04-29T12:57:24.011Z</time></trkpt><trkpt lat="40.09725656097177" lon="9.463472646549786"><ele>990.0</ele><time>2026-04-29T12:57:25.011Z</time></trkpt><trkpt lat="40.09731841632466" lon="9.463587351700282"><ele>990.0</ele><time>2026-04-29T12:57:26.011Z</time></trkpt><trkpt lat="40.097376045632224" lon="9.46371562557323"><ele>990.0</ele><time>2026-04-29T12:57:27.011Z</time></trkpt><trkpt lat="40.09743581417557" lon="9.463858074442314"><ele>990.0</ele><time>2026-04-29T12:57:28.011Z</time></trkpt><trkpt lat="40.09750380588195" lon="9.464002956672843"><ele>990.0</ele><time>2026-04-29T12:57:29.011Z</time></trkpt><trkpt lat="40.09757694021739" lon="9.464136134758634"><ele>991.8</ele><time>2026-04-29T12:57:30.011Z</time></trkpt><trkpt lat="40.0976521471318" lon="9.464248674705406"><ele>993.6</ele><time>2026-04-29T12:57:31.011Z</time></trkpt><trkpt lat="40.097737122764556" lon="9.464339227723702"><ele>995.4000000000001</ele><time>2026-04-29T12:57:32.011Z</time></trkpt><trkpt lat="40.09782566304078" lon="9.464411839339506"><ele>997.2</ele><time>2026-04-29T12:57:33.011Z</time></trkpt><trkpt lat="40.097927678448784" lon="9.46445556081417"><ele>999.0</ele><time>2026-04-29T12:57:34.011Z</time></trkpt><trkpt lat="40.09803540121152" lon="9.464486430081884"><ele>999.0</ele><time>2026-04-29T12:57:35.011Z</time></trkpt><trkpt lat="40.09815323694416" lon="9.464516455613612"><ele>999.0</ele><time>2026-04-29T12:57:36.011Z</time></trkpt><trkpt lat="40.09827895111518" lon="9.46455032591346"><ele>999.0</ele><time>2026-04-29T12:57:37.011Z</time></trkpt><trkpt lat="40.09840458912186" lon="9.464585648305388"><ele>999.0</ele><time>2026-04-29T12:57:38.011Z</time></trkpt><trkpt lat="40.09854178233719" lon="9.46462698616305"><ele>1002.5</ele><time>2026-04-29T12:57:39.011Z</time></trkpt><trkpt lat="40.09868260549782" lon="9.464670713006655"><ele>1006.0</ele><time>2026-04-29T12:57:40.011Z</time></trkpt><trkpt lat="40.098828779821794" lon="9.464716961894181"><ele>1009.5</ele><time>2026-04-29T12:57:41.011Z</time></trkpt><trkpt lat="40.09897744994303" lon="9.464765086198303"><ele>1013.0</ele><time>2026-04-29T12:57:42.011Z</time></trkpt><trkpt lat="40.09912049366703" lon="9.464813991037545"><ele>1013.0</ele><time>2026-04-29T12:57:43.011Z</time></trkpt><trkpt lat="40.09926349575057" lon="9.464862857203393"><ele>1013.0</ele><time>2026-04-29T12:57:44.012Z</time></trkpt><trkpt lat="40.09940852791475" lon="9.464924572069174"><ele>1013.0</ele><time>2026-04-29T12:57:45.012Z</time></trkpt><trkpt lat="40.09955377002627" lon="9.465001078511653"><ele>1013.0</ele><time>2026-04-29T12:57:46.012Z</time></trkpt><trkpt lat="40.099706585408114" lon="9.465087146383105"><ele>1013.0</ele><time>2026-04-29T12:57:47.012Z</time></trkpt><trkpt lat="40.09986962560055" lon="9.465170102627514"><ele>1013.0</ele><time>2026-04-29T12:57:48.012Z</time></trkpt><trkpt lat="40.1000369219289" lon="9.465253467216076"><ele>1012.6666666666667</ele><time>2026-04-29T12:57:49.012Z</time></trkpt><trkpt lat="40.10020534311166" lon="9.465335814483023"><ele>1012.3333333333333</ele><time>2026-04-29T12:57:50.012Z</time></trkpt><trkpt lat="40.10037432321173" lon="9.465422753333824"><ele>1012.0</ele><time>2026-04-29T12:57:51.012Z</time></trkpt><trkpt lat="40.10054640836195" lon="9.465512709412495"><ele>1017.6666666666666</ele><time>2026-04-29T12:57:52.012Z</time></trkpt><trkpt lat="40.10071431692517" lon="9.46559558601215"><ele>1023.3333333333333</ele><time>2026-04-29T12:57:53.012Z</time></trkpt><trkpt lat="40.100881433560474" lon="9.46567359436877"><ele>1029.0</ele><time>2026-04-29T12:57:54.012Z</time></trkpt><trkpt lat="40.10104934656137" lon="9.465754155926346"><ele>1029.0</ele><time>2026-04-29T12:57:55.012Z</time></trkpt><trkpt lat="40.10121226605122" lon="9.46583345727495"><ele>1029.0</ele><time>2026-04-29T12:57:56.012Z</time></trkpt><trkpt lat="40.101373889127366" lon="9.465920104227044"><ele>1029.0</ele><time>2026-04-29T12:57:57.012Z</time></trkpt><trkpt lat="40.101529987003445" lon="9.466000237855551"><ele>1031.0</ele><time>2026-04-29T12:57:58.012Z</time></trkpt><trkpt lat="40.101684549485064" lon="9.46607981561931"><ele>1033.0</ele><time>2026-04-29T12:57:59.012Z</time></trkpt><trkpt lat="40.10183631506625" lon="9.466157532702349"><ele>1035.0</ele><time>2026-04-29T12:58:00.012Z</time></trkpt><trkpt lat="40.10197601219949" lon="9.466221605083344"><ele>1035.0</ele><time>2026-04-29T12:58:01.012Z</time></trkpt><trkpt lat="40.10210586424999" lon="9.466275989202737"><ele>1035.0</ele><time>2026-04-29T12:58:02.012Z</time></trkpt><trkpt lat="40.10223374316645" lon="9.466322377244083"><ele>1035.0</ele><time>2026-04-29T12:58:03.012Z</time></trkpt><trkpt lat="40.10236841110388" lon="9.466368278068213"><ele>1035.0</ele><time>2026-04-29T12:58:04.012Z</time></trkpt><trkpt lat="40.10250195494037" lon="9.466412917026977"><ele>1033.25</ele><time>2026-04-29T12:58:05.012Z</time></trkpt><trkpt lat="40.10263443972854" lon="9.466458112291964"><ele>1031.5</ele><time>2026-04-29T12:58:06.012Z</time></trkpt><trkpt lat="40.10275519049279" lon="9.466527240509926"><ele>1029.75</ele><time>2026-04-29T12:58:07.012Z</time></trkpt><trkpt lat="40.1028656303683" lon="9.466617203140066"><ele>1028.0</ele><time>2026-04-29T12:58:08.012Z</time></trkpt><trkpt lat="40.102962973002846" lon="9.466725285722047"><ele>1028.0</ele><time>2026-04-29T12:58:09.012Z</time></trkpt><trkpt lat="40.10304865031927" lon="9.466851227304993"><ele>1028.0</ele><time>2026-04-29T12:58:10.012Z</time></trkpt><trkpt lat="40.10312572855558" lon="9.466994133366693"><ele>1028.0</ele><time>2026-04-29T12:58:11.012Z</time></trkpt><trkpt lat="40.103188637408564" lon="9.467149982648749"><ele>1028.0</ele><time>2026-04-29T12:58:12.012Z</time></trkpt><trkpt lat="40.103244798535805" lon="9.467323334512159"><ele>1025.0</ele><time>2026-04-29T12:58:13.012Z</time></trkpt><trkpt lat="40.10329980289568" lon="9.467512701032232"><ele>1022.0</ele><time>2026-04-29T12:58:14.012Z</time></trkpt><trkpt lat="40.103353222985014" lon="9.46770995097872"><ele>1019.0</ele><time>2026-04-29T12:58:15.012Z</time></trkpt><trkpt lat="40.10341177794658" lon="9.46790381874485"><ele>1016.6666666666667</ele><time>2026-04-29T12:58:16.012Z</time></trkpt><trkpt lat="40.10346277710642" lon="9.468104503962682"><ele>1014.3333333333333</ele><time>2026-04-29T12:58:17.012Z</time></trkpt><trkpt lat="40.10351884696037" lon="9.468306725213779"><ele>1012.0</ele><time>2026-04-29T12:58:18.012Z</time></trkpt><trkpt lat="40.10357673503706" lon="9.468501104574647"><ele>1012.0</ele><time>2026-04-29T12:58:19.012Z</time></trkpt><trkpt lat="40.103635538554315" lon="9.468699709811128"><ele>1012.0</ele><time>2026-04-29T12:58:20.012Z</time></trkpt><trkpt lat="40.10369177524541" lon="9.468896401141997"><ele>1012.0</ele><time>2026-04-29T12:58:21.012Z</time></trkpt><trkpt lat="40.103744312418726" lon="9.469085830189819"><ele>1009.0</ele><time>2026-04-29T12:58:22.012Z</time></trkpt><trkpt lat="40.10379754030593" lon="9.469272696673617"><ele>1006.0</ele><time>2026-04-29T12:58:23.012Z</time></trkpt><trkpt lat="40.10385382682672" lon="9.469454888275399"><ele>1003.0</ele><time>2026-04-29T12:58:24.012Z</time></trkpt><trkpt lat="40.10391619684139" lon="9.469637819565023"><ele>999.0</ele><time>2026-04-29T12:58:25.012Z</time></trkpt><trkpt lat="40.10398390484115" lon="9.469813756685959"><ele>995.0</ele><time>2026-04-29T12:58:26.012Z</time></trkpt><trkpt lat="40.1040601367343" lon="9.469992639217551"><ele>991.0</ele><time>2026-04-29T12:58:27.012Z</time></trkpt><trkpt lat="40.10414163832984" lon="9.470170051509395"><ele>991.0</ele><time>2026-04-29T12:58:28.012Z</time></trkpt><trkpt lat="40.104227620327606" lon="9.470346446515107"><ele>991.0</ele><time>2026-04-29T12:58:29.012Z</time></trkpt><trkpt lat="40.10431726402565" lon="9.470512025815264"><ele>991.0</ele><time>2026-04-29T12:58:30.012Z</time></trkpt><trkpt lat="40.10441573541174" lon="9.470684404340622"><ele>991.0</ele><time>2026-04-29T12:58:31.012Z</time></trkpt><trkpt lat="40.104518265855546" lon="9.47084510772631"><ele>991.0</ele><time>2026-04-29T12:58:32.012Z</time></trkpt><trkpt lat="40.104625124003775" lon="9.470995370461853"><ele>991.0</ele><time>2026-04-29T12:58:33.012Z</time></trkpt><trkpt lat="40.10473728473047" lon="9.471137900481132"><ele>991.0</ele><time>2026-04-29T12:58:34.012Z</time></trkpt><trkpt lat="40.10485222915826" lon="9.47126862300614"><ele>991.0</ele><time>2026-04-29T12:58:35.012Z</time></trkpt><trkpt lat="40.10496745909735" lon="9.471389062603658"><ele>991.0</ele><time>2026-04-29T12:58:36.012Z</time></trkpt><trkpt lat="40.10508769971931" lon="9.471502695892676"><ele>991.0</ele><time>2026-04-29T12:58:37.012Z</time></trkpt><trkpt lat="40.10521319437665" lon="9.471602062419521"><ele>989.25</ele><time>2026-04-29T12:58:38.012Z</time></trkpt><trkpt lat="40.10534508564502" lon="9.471690503890338"><ele>987.5</ele><time>2026-04-29T12:58:39.012Z</time></trkpt><trkpt lat="40.105481765938336" lon="9.47176257001189"><ele>985.75</ele><time>2026-04-29T12:58:40.012Z</time></trkpt><trkpt lat="40.105623320807055" lon="9.471823247587745"><ele>984.0</ele><time>2026-04-29T12:58:41.012Z</time></trkpt><trkpt lat="40.105763211702396" lon="9.47186262081073"><ele>981.25</ele><time>2026-04-29T12:58:42.012Z</time></trkpt><trkpt lat="40.10590101797455" lon="9.471881865737275"><ele>978.5</ele><time>2026-04-29T12:58:43.012Z</time></trkpt><trkpt lat="40.106038183064314" lon="9.471882899312117"><ele>975.75</ele><time>2026-04-29T12:58:44.012Z</time></trkpt><trkpt lat="40.10616897700694" lon="9.471865894672991"><ele>973.0</ele><time>2026-04-29T12:58:45.012Z</time></trkpt><trkpt lat="40.10630410699193" lon="9.471830576069332"><ele>973.0</ele><time>2026-04-29T12:58:46.012Z</time></trkpt><trkpt lat="40.10642922176517" lon="9.471795412228554"><ele>973.0</ele><time>2026-04-29T12:58:47.012Z</time></trkpt><trkpt lat="40.106539118891504" lon="9.471775066086101"><ele>973.0</ele><time>2026-04-29T12:58:48.012Z</time></trkpt><trkpt lat="40.10664583883327" lon="9.471785131470938"><ele>973.0</ele><time>2026-04-29T12:58:49.012Z</time></trkpt><trkpt lat="40.106747557506935" lon="9.47181704398268"><ele>971.0</ele><time>2026-04-29T12:58:50.012Z</time></trkpt><trkpt lat="40.10684908997453" lon="9.471870136286912"><ele>969.0</ele><time>2026-04-29T12:58:51.012Z</time></trkpt><trkpt lat="40.10695066691995" lon="9.471946973571562"><ele>967.0</ele><time>2026-04-29T12:58:52.012Z</time></trkpt><trkpt lat="40.10705126195774" lon="9.472022818453127"><ele>965.0</ele><time>2026-04-29T12:58:53.012Z</time></trkpt><trkpt lat="40.10715898642881" lon="9.472079546562869"><ele>964.5</ele><time>2026-04-29T12:58:54.012Z</time></trkpt><trkpt lat="40.10727557414711" lon="9.47211764635068"><ele>964.0</ele><time>2026-04-29T12:58:55.012Z</time></trkpt><trkpt lat="40.10740359863151" lon="9.47214592542491"><ele>963.5</ele><time>2026-04-29T12:58:56.012Z</time></trkpt><trkpt lat="40.107530807150084" lon="9.472167018124264"><ele>963.0</ele><time>2026-04-29T12:58:57.012Z</time></trkpt><trkpt lat="40.107654762424694" lon="9.472190971033276"><ele>963.0</ele><time>2026-04-29T12:58:58.012Z</time></trkpt><trkpt lat="40.107782697875066" lon="9.472212022939587"><ele>963.0</ele><time>2026-04-29T12:58:59.012Z</time></trkpt><trkpt lat="40.10790719051142" lon="9.472239185644199"><ele>963.0</ele><time>2026-04-29T12:59:00.012Z</time></trkpt><trkpt lat="40.10802324531764" lon="9.4722692126505"><ele>963.0</ele><time>2026-04-29T12:59:01.012Z</time></trkpt><trkpt lat="40.1081278253517" lon="9.47229004819605"><ele>963.0</ele><time>2026-04-29T12:59:02.012Z</time></trkpt><trkpt lat="40.1082234241355" lon="9.47232160096098"><ele>963.0</ele><time>2026-04-29T12:59:03.012Z</time></trkpt><trkpt lat="40.108313060385086" lon="9.47237368000442"><ele>963.0</ele><time>2026-04-29T12:59:04.012Z</time></trkpt><trkpt lat="40.10840903216849" lon="9.472451234176773"><ele>963.0</ele><time>2026-04-29T12:59:05.012Z</time></trkpt><trkpt lat="40.10851579830704" lon="9.472544865683176"><ele>963.0</ele><time>2026-04-29T12:59:06.012Z</time></trkpt><trkpt lat="40.10863660748831" lon="9.472645293172008"><ele>961.0</ele><time>2026-04-29T12:59:07.012Z</time></trkpt><trkpt lat="40.10875550339672" lon="9.472750683229265"><ele>959.0</ele><time>2026-04-29T12:59:08.012Z</time></trkpt><trkpt lat="40.10887739370115" lon="9.472850154456685"><ele>957.0</ele><time>2026-04-29T12:59:09.012Z</time></trkpt><trkpt lat="40.10901054120828" lon="9.472950130644438"><ele>955.0</ele><time>2026-04-29T12:59:10.012Z</time></trkpt><trkpt lat="40.10913451128676" lon="9.473043546651486"><ele>952.25</ele><time>2026-04-29T12:59:11.012Z</time></trkpt><trkpt lat="40.10925856496182" lon="9.47313598047676"><ele>949.5</ele><time>2026-04-29T12:59:12.012Z</time></trkpt><trkpt lat="40.10937563563508" lon="9.473213613056664"><ele>946.75</ele><time>2026-04-29T12:59:13.012Z</time></trkpt><trkpt lat="40.10949119709783" lon="9.473279238072879"><ele>944.0</ele><time>2026-04-29T12:59:14.012Z</time></trkpt><trkpt lat="40.10960251060173" lon="9.473316591090233"><ele>944.0</ele><time>2026-04-29T12:59:15.012Z</time></trkpt><trkpt lat="40.109723462745826" lon="9.47333344491716"><ele>944.0</ele><time>2026-04-29T12:59:16.013Z</time></trkpt><trkpt lat="40.109836997035295" lon="9.473340611827664"><ele>944.0</ele><time>2026-04-29T12:59:17.013Z</time></trkpt><trkpt lat="40.109945251688124" lon="9.473369017287995"><ele>944.0</ele><time>2026-04-29T12:59:18.013Z</time></trkpt><trkpt lat="40.11005348607073" lon="9.473424624419868"><ele>942.5</ele><time>2026-04-29T12:59:19.013Z</time></trkpt><trkpt lat="40.11017816775047" lon="9.473499954898067"><ele>941.0</ele><time>2026-04-29T12:59:20.013Z</time></trkpt><trkpt lat="40.110308343827676" lon="9.47357811612258"><ele>939.5</ele><time>2026-04-29T12:59:21.013Z</time></trkpt><trkpt lat="40.11044757399786" lon="9.473658850939565"><ele>938.0</ele><time>2026-04-29T12:59:22.013Z</time></trkpt><trkpt lat="40.11058594112781" lon="9.47374467469221"><ele>938.25</ele><time>2026-04-29T12:59:23.013Z</time></trkpt><trkpt lat="40.110726246750126" lon="9.473826086293228"><ele>938.5</ele><time>2026-04-29T12:59:24.013Z</time></trkpt><trkpt lat="40.1108569569292" lon="9.47390274717903"><ele>938.75</ele><time>2026-04-29T12:59:25.013Z</time></trkpt><trkpt lat="40.11096813561241" lon="9.473986765117456"><ele>939.0</ele><time>2026-04-29T12:59:26.013Z</time></trkpt><trkpt lat="40.11106690605534" lon="9.474095816536877"><ele>936.0</ele><time>2026-04-29T12:59:27.013Z</time></trkpt><trkpt lat="40.11114807323841" lon="9.474224148400424"><ele>933.0</ele><time>2026-04-29T12:59:28.013Z</time></trkpt><trkpt lat="40.11123227274625" lon="9.474372280741365"><ele>930.0</ele><time>2026-04-29T12:59:29.013Z</time></trkpt><trkpt lat="40.111310819701316" lon="9.474529121862332"><ele>927.0</ele><time>2026-04-29T12:59:30.013Z</time></trkpt><trkpt lat="40.11139312106557" lon="9.474690758329515"><ele>926.5</ele><time>2026-04-29T12:59:31.013Z</time></trkpt><trkpt lat="40.111466308858624" lon="9.474855539960249"><ele>926.0</ele><time>2026-04-29T12:59:32.013Z</time></trkpt><trkpt lat="40.11154263012082" lon="9.475019732147079"><ele>925.5</ele><time>2026-04-29T12:59:33.013Z</time></trkpt><trkpt lat="40.111620399695006" lon="9.475186556431332"><ele>925.0</ele><time>2026-04-29T12:59:34.013Z</time></trkpt><trkpt lat="40.11169756994276" lon="9.475348375199154"><ele>922.75</ele><time>2026-04-29T12:59:35.013Z</time></trkpt><trkpt lat="40.11177830625936" lon="9.475494100716723"><ele>920.5</ele><time>2026-04-29T12:59:36.013Z</time></trkpt><trkpt lat="40.11187200690818" lon="9.475628412259335"><ele>918.25</ele><time>2026-04-29T12:59:37.013Z</time></trkpt><trkpt lat="40.11198068602818" lon="9.475757414963889"><ele>916.0</ele><time>2026-04-29T12:59:38.013Z</time></trkpt><trkpt lat="40.11209748466475" lon="9.475870688506442"><ele>916.0</ele><time>2026-04-29T12:59:39.013Z</time></trkpt><trkpt lat="40.112221261534835" lon="9.4759731538732"><ele>916.0</ele><time>2026-04-29T12:59:40.013Z</time></trkpt><trkpt lat="40.11235550434416" lon="9.476059320615587"><ele>916.0</ele><time>2026-04-29T12:59:41.013Z</time></trkpt><trkpt lat="40.11249880600144" lon="9.476136749743873"><ele>915.3333333333333</ele><time>2026-04-29T12:59:42.013Z</time></trkpt><trkpt lat="40.11264702225435" lon="9.476206971751354"><ele>914.6666666666667</ele><time>2026-04-29T12:59:43.013Z</time></trkpt><trkpt lat="40.11279712022296" lon="9.476272505620864"><ele>914.0</ele><time>2026-04-29T12:59:44.013Z</time></trkpt><trkpt lat="40.11294982866439" lon="9.476332089693537"><ele>914.0</ele><time>2026-04-29T12:59:45.013Z</time></trkpt><trkpt lat="40.11311028943941" lon="9.476398040378053"><ele>914.0</ele><time>2026-04-29T12:59:46.013Z</time></trkpt><trkpt lat="40.11327599736296" lon="9.47646158188247"><ele>914.0</ele><time>2026-04-29T12:59:47.013Z</time></trkpt><trkpt lat="40.113438482732384" lon="9.476525572802766"><ele>913.0</ele><time>2026-04-29T12:59:48.013Z</time></trkpt><trkpt lat="40.1136028105196" lon="9.476593786512518"><ele>912.0</ele><time>2026-04-29T12:59:49.013Z</time></trkpt><trkpt lat="40.11376890013421" lon="9.476662965723"><ele>911.0</ele><time>2026-04-29T12:59:50.013Z</time></trkpt><trkpt lat="40.113926430426595" lon="9.476735784365136"><ele>912.3333333333334</ele><time>2026-04-29T12:59:51.013Z</time></trkpt><trkpt lat="40.11407966566896" lon="9.476817913444325"><ele>913.6666666666667</ele><time>2026-04-29T12:59:52.013Z</time></trkpt><trkpt lat="40.114231185300056" lon="9.47691435617427"><ele>915.0</ele><time>2026-04-29T12:59:53.013Z</time></trkpt><trkpt lat="40.11437879588793" lon="9.477023223308649"><ele>913.0</ele><time>2026-04-29T12:59:54.013Z</time></trkpt><trkpt lat="40.1145237523803" lon="9.477133714524143"><ele>911.0</ele><time>2026-04-29T12:59:55.013Z</time></trkpt><trkpt lat="40.114671005793326" lon="9.4772378605643"><ele>909.0</ele><time>2026-04-29T12:59:56.013Z</time></trkpt><trkpt lat="40.11481866831648" lon="9.477341577263829"><ele>908.6666666666667</ele><time>2026-04-29T12:59:57.013Z</time></trkpt><trkpt lat="40.11497166752251" lon="9.477450020610146"><ele>908.3333333333334</ele><time>2026-04-29T12:59:58.013Z</time></trkpt><trkpt lat="40.11512330515609" lon="9.477562626093665"><ele>908.0</ele><time>2026-04-29T12:59:59.013Z</time></trkpt><trkpt lat="40.115268362033504" lon="9.477671789297995"><ele>908.0</ele><time>2026-04-29T13:00:00.013Z</time></trkpt><trkpt lat="40.1154112369613" lon="9.477775268949514"><ele>908.0</ele><time>2026-04-29T13:00:01.013Z</time></trkpt><trkpt lat="40.11555859345259" lon="9.47788128680981"><ele>908.0</ele><time>2026-04-29T13:00:02.013Z</time></trkpt><trkpt lat="40.11570646940379" lon="9.477986019823337"><ele>906.6666666666667</ele><time>2026-04-29T13:00:03.013Z</time></trkpt><trkpt lat="40.115854885495914" lon="9.478086782933795"><ele>905.3333333333333</ele><time>2026-04-29T13:00:04.013Z</time></trkpt><trkpt lat="40.11600209047429" lon="9.47818706525175"><ele>904.0</ele><time>2026-04-29T13:00:05.013Z</time></trkpt><trkpt lat="40.11614179013044" lon="9.478289729867432"><ele>904.0</ele><time>2026-04-29T13:00:06.013Z</time></trkpt><trkpt lat="40.1162750912577" lon="9.478394460513577"><ele>904.0</ele><time>2026-04-29T13:00:07.013Z</time></trkpt><trkpt lat="40.11640430902908" lon="9.478498264011293"><ele>904.0</ele><time>2026-04-29T13:00:08.013Z</time></trkpt><trkpt lat="40.11653882172354" lon="9.478599719212145"><ele>904.0</ele><time>2026-04-29T13:00:09.013Z</time></trkpt><trkpt lat="40.116671654367416" lon="9.478703943296765"><ele>904.0</ele><time>2026-04-29T13:00:10.013Z</time></trkpt><trkpt lat="40.11680782844289" lon="9.478811756856183"><ele>904.0</ele><time>2026-04-29T13:00:11.013Z</time></trkpt><trkpt lat="40.11694331673932" lon="9.478916728421162"><ele>903.0</ele><time>2026-04-29T13:00:12.013Z</time></trkpt><trkpt lat="40.11707832037686" lon="9.479020987650015"><ele>902.0</ele><time>2026-04-29T13:00:13.013Z</time></trkpt><trkpt lat="40.11721662239266" lon="9.479127381448878"><ele>901.0</ele><time>2026-04-29T13:00:14.013Z</time></trkpt><trkpt lat="40.117352372600784" lon="9.47923280072867"><ele>900.3333333333333</ele><time>2026-04-29T13:00:15.013Z</time></trkpt><trkpt lat="40.11748872397539" lon="9.479341133703715"><ele>899.6666666666667</ele><time>2026-04-29T13:00:16.013Z</time></trkpt><trkpt lat="40.11762555122781" lon="9.479452086815689"><ele>899.0</ele><time>2026-04-29T13:00:17.013Z</time></trkpt><trkpt lat="40.11776139385267" lon="9.479560633800972"><ele>897.6666666666667</ele><time>2026-04-29T13:00:18.013Z</time></trkpt><trkpt lat="40.117899395241736" lon="9.479669427851338"><ele>896.3333333333333</ele><time>2026-04-29T13:00:19.013Z</time></trkpt><trkpt lat="40.11803419069984" lon="9.479775561375547"><ele>895.0</ele><time>2026-04-29T13:00:20.013Z</time></trkpt><trkpt lat="40.11815875905841" lon="9.479873305823505"><ele>895.25</ele><time>2026-04-29T13:00:21.013Z</time></trkpt><trkpt lat="40.11827443114741" lon="9.479961266815957"><ele>895.5</ele><time>2026-04-29T13:00:22.013Z</time></trkpt><trkpt lat="40.11838370314632" lon="9.48004040217213"><ele>895.75</ele><time>2026-04-29T13:00:23.013Z</time></trkpt><trkpt lat="40.11848899838523" lon="9.480119285585527"><ele>896.0</ele><time>2026-04-29T13:00:24.013Z</time></trkpt><trkpt lat="40.118584679246865" lon="9.480193391074677"><ele>896.0</ele><time>2026-04-29T13:00:25.013Z</time></trkpt><trkpt lat="40.11866391535208" lon="9.480260776990763"><ele>895.9999999999999</ele><time>2026-04-29T13:00:26.005Z</time></trkpt><trkpt lat="40.11873440364111" lon="9.480319521299304"><ele>895.9999999999999</ele><time>2026-04-29T13:00:27.005Z</time></trkpt><trkpt lat="40.11880245899326" lon="9.480386901635374"><ele>896.0</ele><time>2026-04-29T13:00:28.005Z</time></trkpt><trkpt lat="40.118869782893285" lon="9.480468784376983"><ele>896.0</ele><time>2026-04-29T13:00:29.005Z</time></trkpt><trkpt lat="40.11892096847087" lon="9.480572432234922"><ele>895.75</ele><time>2026-04-29T13:00:30.005Z</time></trkpt><trkpt lat="40.11895226131862" lon="9.480697748423355"><ele>895.5</ele><time>2026-04-29T13:00:31.005Z</time></trkpt><trkpt lat="40.11898028478561" lon="9.480863489892677"><ele>895.25</ele><time>2026-04-29T13:00:32.005Z</time></trkpt><trkpt lat="40.11901714879916" lon="9.481062786290417"><ele>895.0</ele><time>2026-04-29T13:00:33.005Z</time></trkpt><trkpt lat="40.11905351463697" lon="9.481279043374574"><ele>894.0</ele><time>2026-04-29T13:00:34.005Z</time></trkpt><trkpt lat="40.11908051816797" lon="9.481485209126394"><ele>893.0</ele><time>2026-04-29T13:00:35.005Z</time></trkpt><trkpt lat="40.11912020093427" lon="9.481664172321853"><ele>892.0</ele><time>2026-04-29T13:00:36.005Z</time></trkpt><trkpt lat="40.119159099385584" lon="9.481843676786168"><ele>891.0</ele><time>2026-04-29T13:00:37.005Z</time></trkpt><trkpt lat="40.119196101004235" lon="9.482029730564813"><ele>891.0</ele><time>2026-04-29T13:00:38.005Z</time></trkpt><trkpt lat="40.119231400135305" lon="9.482211888659567"><ele>891.0</ele><time>2026-04-29T13:00:39.005Z</time></trkpt><trkpt lat="40.119274578134224" lon="9.482402077493582"><ele>891.0</ele><time>2026-04-29T13:00:40.005Z</time></trkpt><trkpt lat="40.1193160430911" lon="9.482545903841256"><ele>891.0</ele><time>2026-04-29T13:00:41.005Z</time></trkpt><trkpt lat="40.11905489964992" lon="9.482272810041499"><ele>891.0</ele><time>2026-04-29T13:00:42.005Z</time></trkpt><trkpt lat="40.119102812296425" lon="9.482398043954278"><ele>891.0</ele><time>2026-04-29T13:00:43.005Z</time></trkpt><trkpt lat="40.11916357884488" lon="9.482523765936337"><ele>891.0</ele><time>2026-04-29T13:00:44.005Z</time></trkpt><trkpt lat="40.11923384594787" lon="9.482659124301092"><ele>891.0</ele><time>2026-04-29T13:00:45.005Z</time></trkpt><trkpt lat="40.11930582470609" lon="9.48279738866342"><ele>891.0</ele><time>2026-04-29T13:00:46.005Z</time></trkpt><trkpt lat="40.11937481996696" lon="9.482939686626086"><ele>891.0</ele><time>2026-04-29T13:00:47.005Z</time></trkpt><trkpt lat="40.11943673537943" lon="9.483072114089998"><ele>891.0</ele><time>2026-04-29T13:00:48.005Z</time></trkpt><trkpt lat="40.119482966322664" lon="9.483201853372618"><ele>891.0</ele><time>2026-04-29T13:00:49.005Z</time></trkpt><trkpt lat="40.11950925274404" lon="9.48333070160592"><ele>891.0</ele><time>2026-04-29T13:00:50.005Z</time></trkpt><trkpt lat="40.119508760940036" lon="9.483451392528247"><ele>890.9999999999999</ele><time>2026-04-29T13:00:51.005Z</time></trkpt><trkpt lat="40.11948670326257" lon="9.483567703737245"><ele>890.9999999999999</ele><time>2026-04-29T13:00:52.005Z</time></trkpt><trkpt lat="40.11944347446843" lon="9.483674543394422"><ele>891.0</ele><time>2026-04-29T13:00:53.005Z</time></trkpt><trkpt lat="40.11939249749287" lon="9.483785503886223"><ele>891.0</ele><time>2026-04-29T13:00:54.005Z</time></trkpt><trkpt lat="40.11933970300649" lon="9.48390289441538"><ele>891.0</ele><time>2026-04-29T13:00:55.005Z</time></trkpt><trkpt lat="40.119290105359916" lon="9.48401537398815"><ele>890.9999999999999</ele><time>2026-04-29T13:00:56.005Z</time></trkpt><trkpt lat="40.11924242256263" lon="9.484126233543199"><ele>890.9999999999999</ele><time>2026-04-29T13:00:57.005Z</time></trkpt><trkpt lat="40.11918640595677" lon="9.484244378634981"><ele>891.0</ele><time>2026-04-29T13:00:58.005Z</time></trkpt><trkpt lat="40.11913073988614" lon="9.484373502830637"><ele>891.0</ele><time>2026-04-29T13:00:59.005Z</time></trkpt><trkpt lat="40.119076647883574" lon="9.484507849969651"><ele>892.75</ele><time>2026-04-29T13:01:00.005Z</time></trkpt><trkpt lat="40.11901889413975" lon="9.484650959636218"><ele>894.5</ele><time>2026-04-29T13:01:01.005Z</time></trkpt><trkpt lat="40.11895944974543" lon="9.484798863079455"><ele>896.25</ele><time>2026-04-29T13:01:02.005Z</time></trkpt><trkpt lat="40.11889652179233" lon="9.484949468674474"><ele>898.0</ele><time>2026-04-29T13:01:03.005Z</time></trkpt><trkpt lat="40.11883158911655" lon="9.485103961277934"><ele>898.0</ele><time>2026-04-29T13:01:04.005Z</time></trkpt><trkpt lat="40.11875250006551" lon="9.485273883307801"><ele>898.0</ele><time>2026-04-29T13:01:05.005Z</time></trkpt><trkpt lat="40.11868416238309" lon="9.485431914871285"><ele>898.0</ele><time>2026-04-29T13:01:06.005Z</time></trkpt><trkpt lat="40.11862120166102" lon="9.485590873725322"><ele>898.0</ele><time>2026-04-29T13:01:07.005Z</time></trkpt><trkpt lat="40.118553173279615" lon="9.485746951339639"><ele>899.75</ele><time>2026-04-29T13:01:08.005Z</time></trkpt><trkpt lat="40.1184903173841" lon="9.485902658790074"><ele>901.5</ele><time>2026-04-29T13:01:09.005Z</time></trkpt><trkpt lat="40.11842446560147" lon="9.486061863452534"><ele>903.25</ele><time>2026-04-29T13:01:10.005Z</time></trkpt><trkpt lat="40.11836070956007" lon="9.486216031387771"><ele>905.0</ele><time>2026-04-29T13:01:11.005Z</time></trkpt><trkpt lat="40.1182901167795" lon="9.486363035520451"><ele>905.5</ele><time>2026-04-29T13:01:12.005Z</time></trkpt><trkpt lat="40.11821646095665" lon="9.486510249207663"><ele>906.0</ele><time>2026-04-29T13:01:13.005Z</time></trkpt><trkpt lat="40.11814377305947" lon="9.486653358305594"><ele>906.5</ele><time>2026-04-29T13:01:14.005Z</time></trkpt><trkpt lat="40.11806758456554" lon="9.486798221965268"><ele>907.0</ele><time>2026-04-29T13:01:15.005Z</time></trkpt><trkpt lat="40.11799801003984" lon="9.486941491653283"><ele>907.0</ele><time>2026-04-29T13:01:16.005Z</time></trkpt><trkpt lat="40.117925174187675" lon="9.487086280444233"><ele>907.0</ele><time>2026-04-29T13:01:17.005Z</time></trkpt><trkpt lat="40.11785500130437" lon="9.48722611506805"><ele>907.0</ele><time>2026-04-29T13:01:18.005Z</time></trkpt><trkpt lat="40.11778465315778" lon="9.487365145168717"><ele>907.0</ele><time>2026-04-29T13:01:19.005Z</time></trkpt><trkpt lat="40.117711916178116" lon="9.487505162325503"><ele>910.5</ele><time>2026-04-29T13:01:20.005Z</time></trkpt><trkpt lat="40.117640750955395" lon="9.487644444030787"><ele>914.0</ele><time>2026-04-29T13:01:21.005Z</time></trkpt><trkpt lat="40.1175736162458" lon="9.487777485913162"><ele>917.5</ele><time>2026-04-29T13:01:22.004Z</time></trkpt><trkpt lat="40.117505718681535" lon="9.48788213370864"><ele>921.0</ele><time>2026-04-29T13:01:23.004Z</time></trkpt><trkpt lat="40.117434134418744" lon="9.487964986813248"><ele>925.0</ele><time>2026-04-29T13:01:24.004Z</time></trkpt><trkpt lat="40.117360122535544" lon="9.488030099486577"><ele>928.9999999999999</ele><time>2026-04-29T13:01:25.004Z</time></trkpt><trkpt lat="40.11725615940483" lon="9.488073825561495"><ele>932.9999999999999</ele><time>2026-04-29T13:01:26.004Z</time></trkpt><trkpt lat="40.11716536061071" lon="9.488122359096419"><ele>937.0</ele><time>2026-04-29T13:01:27.004Z</time></trkpt><trkpt lat="40.11708581934732" lon="9.488164669141907"><ele>941.0</ele><time>2026-04-29T13:01:28.004Z</time></trkpt><trkpt lat="40.11697145527392" lon="9.488221888945194"><ele>941.0000000000001</ele><time>2026-04-29T13:01:30.004Z</time></trkpt><trkpt lat="40.116902378505756" lon="9.488231294226452"><ele>941.0</ele><time>2026-04-29T13:01:31.004Z</time></trkpt><trkpt lat="40.11683430275283" lon="9.488254714537883"><ele>941.0</ele><time>2026-04-29T13:01:32.004Z</time></trkpt><trkpt lat="40.116767932318325" lon="9.488277037689361"><ele>941.0</ele><time>2026-04-29T13:01:33.004Z</time></trkpt><trkpt lat="40.11666629868635" lon="9.488322309734848"><ele>941.0000000000001</ele><time>2026-04-29T13:01:35.004Z</time></trkpt><trkpt lat="40.11659245056121" lon="9.488366908185949"><ele>941.0</ele><time>2026-04-29T13:01:37.004Z</time></trkpt><trkpt lat="40.116521578925536" lon="9.488400402268924"><ele>939.3333333333334</ele><time>2026-04-29T13:01:40.004Z</time></trkpt><trkpt lat="40.11645720893942" lon="9.488441171924178"><ele>937.6666666666667</ele><time>2026-04-29T13:01:42.005Z</time></trkpt><trkpt lat="40.116391910161106" lon="9.48847684740007"><ele>936.0</ele><time>2026-04-29T13:01:44.005Z</time></trkpt><trkpt lat="40.11630752578511" lon="9.488520968467116"><ele>934.3333333333333</ele><time>2026-04-29T13:01:46.005Z</time></trkpt><trkpt lat="40.116232159698505" lon="9.48857586218233"><ele>932.6666666666666</ele><time>2026-04-29T13:01:48.005Z</time></trkpt><trkpt lat="40.11615531161059" lon="9.488653228061644"><ele>931.0</ele><time>2026-04-29T13:01:50.005Z</time></trkpt><trkpt lat="40.116069303314255" lon="9.488741363736342"><ele>931.0</ele><time>2026-04-29T13:01:52.005Z</time></trkpt><trkpt lat="40.11597354644973" lon="9.488816473279046"><ele>930.9999999999999</ele><time>2026-04-29T13:01:54.005Z</time></trkpt><trkpt lat="40.11590810623771" lon="9.488793292617995"><ele>930.9999999999999</ele><time>2026-04-29T13:01:55.005Z</time></trkpt><trkpt lat="40.11584668794944" lon="9.488668754809119"><ele>931.0</ele><time>2026-04-29T13:01:57.005Z</time></trkpt><trkpt lat="40.11580203162026" lon="9.488526296060881"><ele>931.0</ele><time>2026-04-29T13:01:59.005Z</time></trkpt><trkpt lat="40.115702084913096" lon="9.488442961733552"><ele>931.4</ele><time>2026-04-29T13:02:01.005Z</time></trkpt><trkpt lat="40.115586784944355" lon="9.488477596463182"><ele>931.8</ele><time>2026-04-29T13:02:03.005Z</time></trkpt><trkpt lat="40.115475003056716" lon="9.488571528519545"><ele>932.1999999999999</ele><time>2026-04-29T13:02:05.005Z</time></trkpt><trkpt lat="40.11540682260625" lon="9.488636836797546"><ele>932.5999999999999</ele><time>2026-04-29T13:02:06.005Z</time></trkpt><trkpt lat="40.11533711386113" lon="9.488702992620352"><ele>933.0</ele><time>2026-04-29T13:02:07.005Z</time></trkpt><trkpt lat="40.11527337159797" lon="9.488752174905347"><ele>935.1666666666666</ele><time>2026-04-29T13:02:08.005Z</time></trkpt><trkpt lat="40.1152103945725" lon="9.488806949082472"><ele>937.3333333333333</ele><time>2026-04-29T13:02:09.005Z</time></trkpt><trkpt lat="40.11514233436757" lon="9.488869534850911"><ele>939.5</ele><time>2026-04-29T13:02:10.005Z</time></trkpt><trkpt lat="40.11507886890432" lon="9.488912552001004"><ele>941.6666666666666</ele><time>2026-04-29T13:02:11.005Z</time></trkpt><trkpt lat="40.11501456779148" lon="9.48892030626509"><ele>943.8333333333333</ele><time>2026-04-29T13:02:12.005Z</time></trkpt><trkpt lat="40.114910648760386" lon="9.488879536434181"><ele>946.0</ele><time>2026-04-29T13:02:14.005Z</time></trkpt><trkpt lat="40.1148533413954" lon="9.488837288253464"><ele>946.3333333333333</ele><time>2026-04-29T13:02:16.005Z</time></trkpt><trkpt lat="40.11479640374404" lon="9.488875617813894"><ele>946.6666666666666</ele><time>2026-04-29T13:02:39.005Z</time></trkpt><trkpt lat="40.11472971623243" lon="9.488814804102322"><ele>947.0</ele><time>2026-04-29T13:02:41.005Z</time></trkpt><trkpt lat="40.11465254268527" lon="9.488761901700885"><ele>947.3333333333333</ele><time>2026-04-29T13:02:43.005Z</time></trkpt><trkpt lat="40.11454321057845" lon="9.48870658599899"><ele>947.6666666666666</ele><time>2026-04-29T13:02:45.005Z</time></trkpt><trkpt lat="40.114473214822404" lon="9.488701240077747"><ele>948.0</ele><time>2026-04-29T13:02:46.005Z</time></trkpt><trkpt lat="40.11439432569508" lon="9.48870796029194"><ele>944.8333333333334</ele><time>2026-04-29T13:02:47.005Z</time></trkpt><trkpt lat="40.11431546509974" lon="9.488720132121871"><ele>941.6666666666667</ele><time>2026-04-29T13:02:48.005Z</time></trkpt><trkpt lat="40.114228352852386" lon="9.488720715398633"><ele>938.5</ele><time>2026-04-29T13:02:49.005Z</time></trkpt><trkpt lat="40.11414054908054" lon="9.48871705468293"><ele>935.3333333333334</ele><time>2026-04-29T13:02:50.005Z</time></trkpt><trkpt lat="40.11405830541628" lon="9.488727991040953"><ele>932.1666666666667</ele><time>2026-04-29T13:02:51.005Z</time></trkpt><trkpt lat="40.113984968568516" lon="9.488731376230554"><ele>929.0</ele><time>2026-04-29T13:02:52.005Z</time></trkpt><trkpt lat="40.11391016204506" lon="9.4887530385638"><ele>930.75</ele><time>2026-04-29T13:02:53.005Z</time></trkpt><trkpt lat="40.11382692190858" lon="9.488866510922563"><ele>932.5</ele><time>2026-04-29T13:02:55.005Z</time></trkpt><trkpt lat="40.113772883363524" lon="9.489022852504716"><ele>934.25</ele><time>2026-04-29T13:02:57.005Z</time></trkpt><trkpt lat="40.113706066169506" lon="9.489120336876164"><ele>936.0</ele><time>2026-04-29T13:02:58.005Z</time></trkpt><trkpt lat="40.11362099542806" lon="9.489192135883092"><ele>936.0</ele><time>2026-04-29T13:02:59.005Z</time></trkpt><trkpt lat="40.113522883219304" lon="9.489247810775035"><ele>935.9999999999999</ele><time>2026-04-29T13:03:00.005Z</time></trkpt><trkpt lat="40.11342283413559" lon="9.489295832314536"><ele>935.9999999999999</ele><time>2026-04-29T13:03:01.005Z</time></trkpt><trkpt lat="40.11332418009241" lon="9.48933376178665"><ele>936.0</ele><time>2026-04-29T13:03:02.005Z</time></trkpt><trkpt lat="40.11323042679524" lon="9.48937314479578"><ele>936.0</ele><time>2026-04-29T13:03:03.005Z</time></trkpt><trkpt lat="40.113133409703536" lon="9.489418235114014"><ele>936.0</ele><time>2026-04-29T13:03:04.005Z</time></trkpt><trkpt lat="40.11304361567902" lon="9.489455863136556"><ele>935.9999999999999</ele><time>2026-04-29T13:03:05.005Z</time></trkpt><trkpt lat="40.11295984548704" lon="9.489506160599037"><ele>935.9999999999999</ele><time>2026-04-29T13:03:06.005Z</time></trkpt><trkpt lat="40.11288934735587" lon="9.489578599671457"><ele>936.0</ele><time>2026-04-29T13:03:07.005Z</time></trkpt><trkpt lat="40.11281892052465" lon="9.489670050225177"><ele>936.0</ele><time>2026-04-29T13:03:08.005Z</time></trkpt><trkpt lat="40.11275586149476" lon="9.489786043170058"><ele>936.0</ele><time>2026-04-29T13:03:09.005Z</time></trkpt><trkpt lat="40.11269173054001" lon="9.489921866746863"><ele>936.0</ele><time>2026-04-29T13:03:10.005Z</time></trkpt><trkpt lat="40.112637528184884" lon="9.490064462797926"><ele>936.0</ele><time>2026-04-29T13:03:11.005Z</time></trkpt><trkpt lat="40.112578325860454" lon="9.490205529711696"><ele>936.0</ele><time>2026-04-29T13:03:12.006Z</time></trkpt><trkpt lat="40.11251315580928" lon="9.490339468296007"><ele>936.0</ele><time>2026-04-29T13:03:13.006Z</time></trkpt><trkpt lat="40.11244818719052" lon="9.490471404233658"><ele>936.0</ele><time>2026-04-29T13:03:14.006Z</time></trkpt><trkpt lat="40.112386125007305" lon="9.490616981983631"><ele>936.0</ele><time>2026-04-29T13:03:15.006Z</time></trkpt><trkpt lat="40.112336847736884" lon="9.490766611745647"><ele>936.0</ele><time>2026-04-29T13:03:16.006Z</time></trkpt><trkpt lat="40.11229955165398" lon="9.490913136933813"><ele>936.0</ele><time>2026-04-29T13:03:17.006Z</time></trkpt><trkpt lat="40.11226212525078" lon="9.491048094745278"><ele>935.9999999999999</ele><time>2026-04-29T13:03:18.006Z</time></trkpt><trkpt lat="40.11221733038889" lon="9.491184713910998"><ele>935.9999999999999</ele><time>2026-04-29T13:03:19.006Z</time></trkpt><trkpt lat="40.11217184361088" lon="9.491309841797895"><ele>936.0</ele><time>2026-04-29T13:03:20.006Z</time></trkpt><trkpt lat="40.11210983891107" lon="9.491421150161537"><ele>936.0</ele><time>2026-04-29T13:03:21.006Z</time></trkpt><trkpt lat="40.11203749150893" lon="9.491531735020622"><ele>937.0</ele><time>2026-04-29T13:03:22.006Z</time></trkpt><trkpt lat="40.11197315149881" lon="9.491643484752185"><ele>938.0</ele><time>2026-04-29T13:03:23.006Z</time></trkpt><trkpt lat="40.11193419065456" lon="9.491733649507086"><ele>939.0</ele><time>2026-04-29T13:03:24.006Z</time></trkpt><trkpt lat="40.11192164586821" lon="9.491830985678538"><ele>940.0</ele><time>2026-04-29T13:03:25.006Z</time></trkpt><trkpt lat="40.11191808129007" lon="9.491933811139187"><ele>941.0</ele><time>2026-04-29T13:03:26.006Z</time></trkpt><trkpt lat="40.11193363038766" lon="9.492054413706404"><ele>942.0</ele><time>2026-04-29T13:03:27.005Z</time></trkpt><trkpt lat="40.11194619493714" lon="9.492171437857616"><ele>942.3333333333334</ele><time>2026-04-29T13:03:28.004Z</time></trkpt><trkpt lat="40.11194335275941" lon="9.49228784278868"><ele>942.6666666666667</ele><time>2026-04-29T13:03:29.004Z</time></trkpt><trkpt lat="40.11192231212661" lon="9.492379260259257"><ele>943.0</ele><time>2026-04-29T13:03:30.004Z</time></trkpt><trkpt lat="40.11188040605345" lon="9.492454172323095"><ele>943.3333333333334</ele><time>2026-04-29T13:03:31.004Z</time></trkpt><trkpt lat="40.11181692647044" lon="9.492532942165026"><ele>943.6666666666667</ele><time>2026-04-29T13:03:32.004Z</time></trkpt><trkpt lat="40.1117464761782" lon="9.492611206989963"><ele>944.0</ele><time>2026-04-29T13:03:33.005Z</time></trkpt><trkpt lat="40.11167007341622" lon="9.492697140516242"><ele>944.0</ele><time>2026-04-29T13:03:34.004Z</time></trkpt><trkpt lat="40.111593491312014" lon="9.49278788191996"><ele>944.0000000000001</ele><time>2026-04-29T13:03:35.004Z</time></trkpt><trkpt lat="40.11151268289831" lon="9.492880052074453"><ele>944.0000000000001</ele><time>2026-04-29T13:03:36.005Z</time></trkpt><trkpt lat="40.1114317681704" lon="9.492974265482253"><ele>944.0</ele><time>2026-04-29T13:03:37.005Z</time></trkpt><trkpt lat="40.111350544063285" lon="9.49307524054299"><ele>944.0</ele><time>2026-04-29T13:03:38.005Z</time></trkpt><trkpt lat="40.11127278262446" lon="9.493179857741023"><ele>945.0</ele><time>2026-04-29T13:03:39.005Z</time></trkpt><trkpt lat="40.111199566674586" lon="9.493291635333984"><ele>946.0</ele><time>2026-04-29T13:03:40.005Z</time></trkpt><trkpt lat="40.11113609100366" lon="9.493412565175028"><ele>947.0</ele><time>2026-04-29T13:03:41.005Z</time></trkpt><trkpt lat="40.11108108531066" lon="9.493543319568225"><ele>948.0</ele><time>2026-04-29T13:03:42.005Z</time></trkpt><trkpt lat="40.11103676225177" lon="9.493679586848698"><ele>948.0</ele><time>2026-04-29T13:03:43.005Z</time></trkpt><trkpt lat="40.111004950344" lon="9.493813374918572"><ele>948.0</ele><time>2026-04-29T13:03:44.005Z</time></trkpt><trkpt lat="40.110985324323195" lon="9.493939693326725"><ele>948.0</ele><time>2026-04-29T13:03:45.005Z</time></trkpt><trkpt lat="40.11098609914535" lon="9.494059195569045"><ele>948.0</ele><time>2026-04-29T13:03:46.005Z</time></trkpt><trkpt lat="40.11100331993284" lon="9.494148817111245"><ele>948.0</ele><time>2026-04-29T13:03:47.005Z</time></trkpt><trkpt lat="40.11102440858207" lon="9.494233471227224"><ele>948.0</ele><time>2026-04-29T13:03:49.005Z</time></trkpt><trkpt lat="40.1110379269937" lon="9.494327141999149"><ele>948.0</ele><time>2026-04-29T13:04:35.006Z</time></trkpt><trkpt lat="40.111052093806514" lon="9.494477705816102"><ele>948.0</ele><time>2026-04-29T13:04:37.006Z</time></trkpt><trkpt lat="40.110988407887284" lon="9.49457979247122"><ele>948.0</ele><time>2026-04-29T13:04:39.006Z</time></trkpt><trkpt lat="40.110920804835615" lon="9.494620800466574"><ele>948.0</ele><time>2026-04-29T13:04:40.006Z</time></trkpt><trkpt lat="40.11082788857266" lon="9.494663651756271"><ele>948.0</ele><time>2026-04-29T13:04:41.006Z</time></trkpt><trkpt lat="40.110732705364896" lon="9.494711186446533"><ele>947.5</ele><time>2026-04-29T13:04:42.006Z</time></trkpt><trkpt lat="40.11062876953348" lon="9.494768344477295"><ele>947.0</ele><time>2026-04-29T13:04:43.006Z</time></trkpt><trkpt lat="40.11052318844958" lon="9.494834379998332"><ele>946.5</ele><time>2026-04-29T13:04:44.006Z</time></trkpt><trkpt lat="40.110417462558196" lon="9.494906385285544"><ele>946.0</ele><time>2026-04-29T13:04:45.006Z</time></trkpt><trkpt lat="40.1103172011007" lon="9.494992046627925"><ele>946.0</ele><time>2026-04-29T13:04:46.006Z</time></trkpt><trkpt lat="40.11022941204766" lon="9.495090047238133"><ele>946.0</ele><time>2026-04-29T13:04:47.006Z</time></trkpt><trkpt lat="40.11014063080878" lon="9.495198523590519"><ele>946.0</ele><time>2026-04-29T13:04:48.006Z</time></trkpt><trkpt lat="40.11004845450763" lon="9.495318664329213"><ele>946.0</ele><time>2026-04-29T13:04:49.006Z</time></trkpt><trkpt lat="40.10995502176841" lon="9.49544005488521"><ele>946.5</ele><time>2026-04-29T13:04:50.006Z</time></trkpt><trkpt lat="40.10985809002028" lon="9.495566724754019"><ele>947.0</ele><time>2026-04-29T13:04:51.006Z</time></trkpt><trkpt lat="40.109754920934726" lon="9.495699224844342"><ele>947.5</ele><time>2026-04-29T13:04:52.006Z</time></trkpt><trkpt lat="40.1096545207809" lon="9.495829483999275"><ele>948.0</ele><time>2026-04-29T13:04:53.006Z</time></trkpt><trkpt lat="40.109556411559964" lon="9.49595819174734"><ele>948.0</ele><time>2026-04-29T13:04:54.006Z</time></trkpt><trkpt lat="40.10945438437618" lon="9.496091436036426"><ele>948.0</ele><time>2026-04-29T13:04:55.006Z</time></trkpt><trkpt lat="40.10935264212346" lon="9.496223056487764"><ele>948.0</ele><time>2026-04-29T13:04:56.006Z</time></trkpt><trkpt lat="40.10925880908702" lon="9.496349634862792"><ele>948.0</ele><time>2026-04-29T13:04:57.006Z</time></trkpt><trkpt lat="40.10916210303772" lon="9.496476711213408"><ele>947.8</ele><time>2026-04-29T13:04:58.006Z</time></trkpt><trkpt lat="40.10907389565441" lon="9.496586954451642"><ele>947.5999999999999</ele><time>2026-04-29T13:04:59.006Z</time></trkpt><trkpt lat="40.108993714627566" lon="9.496689820203633"><ele>947.4000000000001</ele><time>2026-04-29T13:05:00.006Z</time></trkpt><trkpt lat="40.10891847234916" lon="9.496783819294004"><ele>947.2</ele><time>2026-04-29T13:05:01.006Z</time></trkpt><trkpt lat="40.108849218924256" lon="9.496868632690314"><ele>947.0</ele><time>2026-04-29T13:05:02.006Z</time></trkpt><trkpt lat="40.1087876800404" lon="9.49694995810012"><ele>947.0000000000001</ele><time>2026-04-29T13:05:03.006Z</time></trkpt><trkpt lat="40.10873029054356" lon="9.49702257191464"><ele>947.0</ele><time>2026-04-29T13:05:04.006Z</time></trkpt><trkpt lat="40.10867674024463" lon="9.497089783193918"><ele>947.0</ele><time>2026-04-29T13:05:05.006Z</time></trkpt><trkpt lat="40.108629210869175" lon="9.497150999097409"><ele>947.0</ele><time>2026-04-29T13:05:06.006Z</time></trkpt><trkpt lat="40.10855803048953" lon="9.497246227205789"><ele>947.0000000000001</ele><time>2026-04-29T13:05:08.006Z</time></trkpt><trkpt lat="40.108490796544494" lon="9.49732710037871"><ele>947.0</ele><time>2026-04-29T13:05:11.006Z</time></trkpt><trkpt lat="40.108416405546144" lon="9.497429412627323"><ele>946.8571428571428</ele><time>2026-04-29T13:05:13.006Z</time></trkpt><trkpt lat="40.10837146369141" lon="9.497488466775334"><ele>946.7142857142856</ele><time>2026-04-29T13:05:14.006Z</time></trkpt><trkpt lat="40.10832363985663" lon="9.497548169261105"><ele>946.5714285714286</ele><time>2026-04-29T13:05:15.006Z</time></trkpt><trkpt lat="40.10827358193301" lon="9.497611705198596"><ele>946.4285714285713</ele><time>2026-04-29T13:05:16.006Z</time></trkpt><trkpt lat="40.10821924482358" lon="9.497683205877731"><ele>946.2857142857142</ele><time>2026-04-29T13:05:17.006Z</time></trkpt><trkpt lat="40.10816513142609" lon="9.497757474829545"><ele>946.1428571428571</ele><time>2026-04-29T13:05:18.006Z</time></trkpt><trkpt lat="40.1081082359639" lon="9.497832526001655"><ele>946.0</ele><time>2026-04-29T13:05:19.006Z</time></trkpt><trkpt lat="40.108049320109906" lon="9.497907507042672"><ele>946.0</ele><time>2026-04-29T13:05:20.006Z</time></trkpt><trkpt lat="40.107994584031594" lon="9.497977603492272"><ele>945.9999999999999</ele><time>2026-04-29T13:05:21.006Z</time></trkpt><trkpt lat="40.10794801890576" lon="9.498043956232962"><ele>945.9999999999999</ele><time>2026-04-29T13:05:22.006Z</time></trkpt><trkpt lat="40.107861931890575" lon="9.498162962083224"><ele>946.0</ele><time>2026-04-29T13:05:24.006Z</time></trkpt><trkpt lat="40.10778276011526" lon="9.498266710388787"><ele>946.0</ele><time>2026-04-29T13:05:26.006Z</time></trkpt><trkpt lat="40.1076867940315" lon="9.498383754427437"><ele>946.0</ele><time>2026-04-29T13:05:28.006Z</time></trkpt><trkpt lat="40.107631064512084" lon="9.498460260803645"><ele>945.9999999999999</ele><time>2026-04-29T13:05:29.006Z</time></trkpt><trkpt lat="40.107569365344006" lon="9.498544137476966"><ele>945.9999999999999</ele><time>2026-04-29T13:05:30.006Z</time></trkpt><trkpt lat="40.107503496608075" lon="9.498633106737126"><ele>946.0</ele><time>2026-04-29T13:05:31.006Z</time></trkpt><trkpt lat="40.107436823906575" lon="9.498721581775797"><ele>946.0</ele><time>2026-04-29T13:05:32.006Z</time></trkpt><trkpt lat="40.10737084422856" lon="9.49880486362143"><ele>947.0</ele><time>2026-04-29T13:05:33.006Z</time></trkpt><trkpt lat="40.10729976286866" lon="9.498893321326811"><ele>947.9999999999999</ele><time>2026-04-29T13:05:34.005Z</time></trkpt><trkpt lat="40.10722715852471" lon="9.498986378966753"><ele>948.9999999999999</ele><time>2026-04-29T13:05:35.005Z</time></trkpt><trkpt lat="40.10715188219411" lon="9.499082063277518"><ele>950.0</ele><time>2026-04-29T13:05:36.006Z</time></trkpt><trkpt lat="40.10707403776358" lon="9.499183270729548"><ele>951.0</ele><time>2026-04-29T13:05:37.005Z</time></trkpt><trkpt lat="40.106990076977375" lon="9.499286886756703"><ele>951.0</ele><time>2026-04-29T13:05:38.005Z</time></trkpt><trkpt lat="40.10690418939007" lon="9.499392174190305"><ele>951.0</ele><time>2026-04-29T13:05:39.006Z</time></trkpt><trkpt lat="40.106818753388886" lon="9.499497337325858"><ele>951.0</ele><time>2026-04-29T13:05:40.005Z</time></trkpt><trkpt lat="40.10673448498502" lon="9.499605980003395"><ele>951.0</ele><time>2026-04-29T13:05:41.005Z</time></trkpt><trkpt lat="40.10665049547894" lon="9.499715949484902"><ele>952.25</ele><time>2026-04-29T13:05:42.006Z</time></trkpt><trkpt lat="40.106560512967086" lon="9.4998287376443"><ele>953.5</ele><time>2026-04-29T13:05:43.005Z</time></trkpt><trkpt lat="40.10646942817296" lon="9.49994653273889"><ele>954.75</ele><time>2026-04-29T13:05:44.005Z</time></trkpt><trkpt lat="40.10638002060214" lon="9.500070925054317"><ele>956.0</ele><time>2026-04-29T13:05:45.005Z</time></trkpt><trkpt lat="40.10629677699655" lon="9.500199898716389"><ele>956.0</ele><time>2026-04-29T13:05:46.005Z</time></trkpt><trkpt lat="40.10621846746161" lon="9.500332304007348"><ele>956.0</ele><time>2026-04-29T13:05:47.005Z</time></trkpt><trkpt lat="40.106152773687846" lon="9.500466778747382"><ele>956.0</ele><time>2026-04-29T13:05:48.005Z</time></trkpt><trkpt lat="40.106078586560955" lon="9.50060434645469"><ele>956.0</ele><time>2026-04-29T13:05:49.005Z</time></trkpt><trkpt lat="40.10603964118083" lon="9.500745078552216"><ele>956.25</ele><time>2026-04-29T13:05:50.005Z</time></trkpt><trkpt lat="40.105995086486985" lon="9.500899116517939"><ele>956.5</ele><time>2026-04-29T13:05:51.005Z</time></trkpt><trkpt lat="40.10595960031532" lon="9.501057079562228"><ele>956.75</ele><time>2026-04-29T13:05:52.005Z</time></trkpt><trkpt lat="40.10593538501335" lon="9.501217511276266"><ele>957.0</ele><time>2026-04-29T13:05:53.005Z</time></trkpt><trkpt lat="40.10591749209809" lon="9.501387481269784"><ele>957.25</ele><time>2026-04-29T13:05:54.005Z</time></trkpt><trkpt lat="40.10590251479867" lon="9.501564610504662"><ele>957.5</ele><time>2026-04-29T13:05:55.005Z</time></trkpt><trkpt lat="40.105889473067094" lon="9.501745275407295"><ele>957.75</ele><time>2026-04-29T13:05:56.005Z</time></trkpt><trkpt lat="40.105875185761704" lon="9.501934047931822"><ele>958.0</ele><time>2026-04-29T13:05:57.005Z</time></trkpt><trkpt lat="40.105855150558114" lon="9.502117877768073"><ele>958.25</ele><time>2026-04-29T13:05:58.005Z</time></trkpt><trkpt lat="40.10582711679573" lon="9.502290281294751"><ele>958.5</ele><time>2026-04-29T13:05:59.005Z</time></trkpt><trkpt lat="40.10578768462605" lon="9.502452364435483"><ele>958.75</ele><time>2026-04-29T13:06:00.005Z</time></trkpt><trkpt lat="40.10573864882685" lon="9.502604253856132"><ele>959.0</ele><time>2026-04-29T13:06:01.005Z</time></trkpt><trkpt lat="40.10567751742199" lon="9.502746664563702"><ele>959.25</ele><time>2026-04-29T13:06:02.005Z</time></trkpt><trkpt lat="40.10560087404634" lon="9.502870891276357"><ele>959.5</ele><time>2026-04-29T13:06:03.005Z</time></trkpt><trkpt lat="40.10551595881888" lon="9.502997523751375"><ele>959.75</ele><time>2026-04-29T13:06:04.005Z</time></trkpt><trkpt lat="40.10542512356887" lon="9.503119808870666"><ele>960.0</ele><time>2026-04-29T13:06:05.005Z</time></trkpt><trkpt lat="40.10532512239452" lon="9.503226150546691"><ele>960.25</ele><time>2026-04-29T13:06:06.005Z</time></trkpt><trkpt lat="40.10521961804314" lon="9.503313139248036"><ele>960.5</ele><time>2026-04-29T13:06:07.005Z</time></trkpt><trkpt lat="40.10510707989717" lon="9.503388596912412"><ele>960.75</ele><time>2026-04-29T13:06:08.005Z</time></trkpt><trkpt lat="40.10498921772717" lon="9.503457232812048"><ele>961.0</ele><time>2026-04-29T13:06:09.005Z</time></trkpt><trkpt lat="40.104857695240135" lon="9.503511437566742"><ele>961.0</ele><time>2026-04-29T13:06:10.005Z</time></trkpt><trkpt lat="40.10471309333779" lon="9.503559707574976"><ele>961.0</ele><time>2026-04-29T13:06:11.005Z</time></trkpt><trkpt lat="40.10454395661204" lon="9.503592345900215"><ele>961.0</ele><time>2026-04-29T13:06:12.005Z</time></trkpt><trkpt lat="40.10438779343743" lon="9.503645383565903"><ele>961.0</ele><time>2026-04-29T13:06:13.005Z</time></trkpt><trkpt lat="40.10422971505199" lon="9.50369906234542"><ele>961.0</ele><time>2026-04-29T13:06:14.005Z</time></trkpt><trkpt lat="40.10408259367468" lon="9.503750077848746"><ele>961.0</ele><time>2026-04-29T13:06:15.005Z</time></trkpt><trkpt lat="40.103936351798616" lon="9.503802714134329"><ele>960.75</ele><time>2026-04-29T13:06:16.005Z</time></trkpt><trkpt lat="40.10379072705455" lon="9.503862766115306"><ele>960.5</ele><time>2026-04-29T13:06:17.005Z</time></trkpt><trkpt lat="40.10365298816792" lon="9.503929479273637"><ele>960.25</ele><time>2026-04-29T13:06:18.005Z</time></trkpt><trkpt lat="40.10352093526216" lon="9.504003212690046"><ele>960.0</ele><time>2026-04-29T13:06:19.005Z</time></trkpt><trkpt lat="40.1033975835316" lon="9.504088375074389"><ele>960.0</ele><time>2026-04-29T13:06:20.005Z</time></trkpt><trkpt lat="40.10327917161654" lon="9.504184268705094"><ele>960.0</ele><time>2026-04-29T13:06:21.005Z</time></trkpt><trkpt lat="40.103166024037215" lon="9.504293366020846"><ele>960.0</ele><time>2026-04-29T13:06:22.005Z</time></trkpt><trkpt lat="40.10306305975611" lon="9.504413031236663"><ele>960.0</ele><time>2026-04-29T13:06:23.005Z</time></trkpt><trkpt lat="40.10296499576942" lon="9.504527490280182"><ele>957.25</ele><time>2026-04-29T13:06:24.005Z</time></trkpt><trkpt lat="40.102870829078306" lon="9.504642049836079"><ele>954.5</ele><time>2026-04-29T13:06:25.005Z</time></trkpt><trkpt lat="40.10278042224746" lon="9.504752776126091"><ele>951.75</ele><time>2026-04-29T13:06:26.005Z</time></trkpt><trkpt lat="40.10269641510636" lon="9.504859394429458"><ele>949.0</ele><time>2026-04-29T13:06:27.005Z</time></trkpt><trkpt lat="40.102627224182505" lon="9.504954269521702"><ele>948.9999999999999</ele><time>2026-04-29T13:06:28.005Z</time></trkpt><trkpt lat="40.102578108446906" lon="9.505043966291614"><ele>949.0</ele><time>2026-04-29T13:06:29.005Z</time></trkpt><trkpt lat="40.102552580556534" lon="9.505133449093535"><ele>949.0</ele><time>2026-04-29T13:06:30.005Z</time></trkpt><trkpt lat="40.10254640502707" lon="9.505227418501258"><ele>949.0</ele><time>2026-04-29T13:06:31.005Z</time></trkpt><trkpt lat="40.102551726239426" lon="9.505339526315497"><ele>948.9999999999999</ele><time>2026-04-29T13:06:32.005Z</time></trkpt><trkpt lat="40.10255422369223" lon="9.50545931646241"><ele>949.0</ele><time>2026-04-29T13:06:33.005Z</time></trkpt><trkpt lat="40.10254351838552" lon="9.505562906215363"><ele>949.9999999999999</ele><time>2026-04-29T13:06:34.005Z</time></trkpt><trkpt lat="40.10251930303867" lon="9.505663731733838"><ele>951.0</ele><time>2026-04-29T13:06:35.005Z</time></trkpt><trkpt lat="40.102474047166936" lon="9.505741237312975"><ele>952.0</ele><time>2026-04-29T13:06:36.005Z</time></trkpt><trkpt lat="40.10241008253888" lon="9.505804999548884"><ele>953.0</ele><time>2026-04-29T13:06:37.005Z</time></trkpt><trkpt lat="40.102330921634255" lon="9.50586366195901"><ele>953.9999999999999</ele><time>2026-04-29T13:06:38.005Z</time></trkpt><trkpt lat="40.10224673651129" lon="9.505908208983657"><ele>955.0</ele><time>2026-04-29T13:06:39.005Z</time></trkpt><trkpt lat="40.10216035573191" lon="9.505941053636645"><ele>948.8333333333333</ele><time>2026-04-29T13:06:40.005Z</time></trkpt><trkpt lat="40.10207681538936" lon="9.505964927598681"><ele>942.6666666666666</ele><time>2026-04-29T13:06:41.005Z</time></trkpt><trkpt lat="40.10198763627429" lon="9.505971743684576"><ele>936.5</ele><time>2026-04-29T13:06:42.005Z</time></trkpt><trkpt lat="40.10189774926473" lon="9.505969739165542"><ele>930.3333333333333</ele><time>2026-04-29T13:06:43.005Z</time></trkpt><trkpt lat="40.10182614182319" lon="9.505968364583188"><ele>924.1666666666666</ele><time>2026-04-29T13:06:44.005Z</time></trkpt><trkpt lat="40.10175371471203" lon="9.506029803298388"><ele>918.0</ele><time>2026-04-29T13:06:46.005Z</time></trkpt><trkpt lat="40.10173309972401" lon="9.506166702254085"><ele>918.3333333333334</ele><time>2026-04-29T13:06:48.005Z</time></trkpt><trkpt lat="40.10173935031247" lon="9.506259311473007"><ele>918.6666666666667</ele><time>2026-04-29T13:06:49.006Z</time></trkpt><trkpt lat="40.10174316539154" lon="9.506373272425083"><ele>919.0</ele><time>2026-04-29T13:06:50.006Z</time></trkpt><trkpt lat="40.10173869284516" lon="9.506482275726736"><ele>919.3333333333334</ele><time>2026-04-29T13:06:51.006Z</time></trkpt><trkpt lat="40.101710310913035" lon="9.506592262075369"><ele>919.6666666666667</ele><time>2026-04-29T13:06:52.006Z</time></trkpt><trkpt lat="40.10169151856659" lon="9.506713410573633"><ele>920.0</ele><time>2026-04-29T13:06:53.006Z</time></trkpt><trkpt lat="40.1016643680274" lon="9.506819131867662"><ele>920.0</ele><time>2026-04-29T13:06:54.006Z</time></trkpt><trkpt lat="40.10165332591194" lon="9.506933602617703"><ele>920.0</ele><time>2026-04-29T13:06:55.006Z</time></trkpt><trkpt lat="40.101606902856176" lon="9.507051798783893"><ele>920.0</ele><time>2026-04-29T13:06:56.006Z</time></trkpt><trkpt lat="40.10162160388771" lon="9.507169047621893"><ele>920.0</ele><time>2026-04-29T13:06:57.006Z</time></trkpt><trkpt lat="40.10163158448313" lon="9.507285043185622"><ele>920.0</ele><time>2026-04-29T13:06:58.006Z</time></trkpt><trkpt lat="40.10163109441173" lon="9.507391657487911"><ele>920.1666666666667</ele><time>2026-04-29T13:06:59.006Z</time></trkpt><trkpt lat="40.10161232585653" lon="9.507485346736113"><ele>920.3333333333334</ele><time>2026-04-29T13:07:00.006Z</time></trkpt><trkpt lat="40.101572215332304" lon="9.507552390765408"><ele>920.5</ele><time>2026-04-29T13:07:01.006Z</time></trkpt><trkpt lat="40.10152710662035" lon="9.507643537737884"><ele>920.6666666666667</ele><time>2026-04-29T13:07:02.006Z</time></trkpt><trkpt lat="40.10147924917671" lon="9.50773969962067"><ele>920.8333333333334</ele><time>2026-04-29T13:07:03.006Z</time></trkpt><trkpt lat="40.10143584704625" lon="9.507810097758567"><ele>921.0</ele><time>2026-04-29T13:07:04.006Z</time></trkpt><trkpt lat="40.10138232323284" lon="9.50787285730596"><ele>910.4</ele><time>2026-04-29T13:07:05.006Z</time></trkpt><trkpt lat="40.1013313085189" lon="9.507931060609833"><ele>899.8</ele><time>2026-04-29T13:07:06.006Z</time></trkpt><trkpt lat="40.10127704938856" lon="9.508069150405515"><ele>889.1999999999999</ele><time>2026-04-29T13:07:08.006Z</time></trkpt><trkpt lat="40.101305041403684" lon="9.508168433338943"><ele>878.5999999999999</ele><time>2026-04-29T13:07:09.006Z</time></trkpt><trkpt lat="40.1013379315699" lon="9.50833240673767"><ele>868.0</ele><time>2026-04-29T13:07:11.006Z</time></trkpt><trkpt lat="40.101343621449985" lon="9.50843618503228"><ele>867.9999999999999</ele><time>2026-04-29T13:07:12.006Z</time></trkpt><trkpt lat="40.10134299439824" lon="9.508546323206556"><ele>868.0</ele><time>2026-04-29T13:07:13.006Z</time></trkpt><trkpt lat="40.1013330495195" lon="9.508651641456117"><ele>868.0</ele><time>2026-04-29T13:07:14.006Z</time></trkpt><trkpt lat="40.10131575059955" lon="9.508758147275785"><ele>868.0</ele><time>2026-04-29T13:07:15.006Z</time></trkpt><trkpt lat="40.10128460041787" lon="9.508840441921622"><ele>867.9999999999999</ele><time>2026-04-29T13:07:16.006Z</time></trkpt><trkpt lat="40.101258069453195" lon="9.508927444152658"><ele>868.0</ele><time>2026-04-29T13:07:17.006Z</time></trkpt><trkpt lat="40.1012364177566" lon="9.509021216700507"><ele>868.3333333333333</ele><time>2026-04-29T13:07:18.006Z</time></trkpt><trkpt lat="40.10123791170174" lon="9.509134776437728"><ele>868.6666666666666</ele><time>2026-04-29T13:07:19.006Z</time></trkpt><trkpt lat="40.101248655065454" lon="9.509236424192093"><ele>869.0</ele><time>2026-04-29T13:07:20.006Z</time></trkpt><trkpt lat="40.101252833579345" lon="9.509350227317839"><ele>869.3333333333333</ele><time>2026-04-29T13:07:21.006Z</time></trkpt><trkpt lat="40.10125330101944" lon="9.509453332778728"><ele>869.6666666666666</ele><time>2026-04-29T13:07:22.006Z</time></trkpt><trkpt lat="40.10126040980016" lon="9.509546977689434"><ele>870.0</ele><time>2026-04-29T13:07:23.006Z</time></trkpt><trkpt lat="40.101261069802156" lon="9.509648716738173"><ele>872.5</ele><time>2026-04-29T13:07:24.006Z</time></trkpt><trkpt lat="40.101248642989816" lon="9.509747199371533"><ele>875.0</ele><time>2026-04-29T13:07:25.006Z</time></trkpt><trkpt lat="40.101225109261925" lon="9.509852073492477"><ele>877.5</ele><time>2026-04-29T13:07:26.006Z</time></trkpt><trkpt lat="40.10119997687157" lon="9.509944961955751"><ele>880.0</ele><time>2026-04-29T13:07:27.006Z</time></trkpt><trkpt lat="40.10116535470976" lon="9.510031460642004"><ele>882.5</ele><time>2026-04-29T13:07:28.006Z</time></trkpt><trkpt lat="40.101113026519855" lon="9.510107934246351"><ele>885.0</ele><time>2026-04-29T13:07:29.006Z</time></trkpt><trkpt lat="40.10108181887718" lon="9.510202983577182"><ele>885.0</ele><time>2026-04-29T13:07:30.006Z</time></trkpt><trkpt lat="40.10101330014531" lon="9.510273172643393"><ele>885.0</ele><time>2026-04-29T13:07:31.006Z</time></trkpt><trkpt lat="40.10096368630393" lon="9.510368582351823"><ele>885.0</ele><time>2026-04-29T13:07:32.006Z</time></trkpt><trkpt lat="40.100938188812734" lon="9.510453503258283"><ele>885.0</ele><time>2026-04-29T13:07:33.006Z</time></trkpt><trkpt lat="40.10091667532593" lon="9.510554167133519"><ele>885.0</ele><time>2026-04-29T13:07:34.006Z</time></trkpt><trkpt lat="40.1008994067477" lon="9.510663828948706"><ele>885.0</ele><time>2026-04-29T13:07:35.006Z</time></trkpt><trkpt lat="40.10089627098861" lon="9.510790659526084"><ele>886.1666666666666</ele><time>2026-04-29T13:07:36.006Z</time></trkpt><trkpt lat="40.10092891748659" lon="9.510910031860456"><ele>887.3333333333333</ele><time>2026-04-29T13:07:37.006Z</time></trkpt><trkpt lat="40.10093516965969" lon="9.511023275328908"><ele>888.5</ele><time>2026-04-29T13:07:38.006Z</time></trkpt><trkpt lat="40.10093628268608" lon="9.511136897897844"><ele>889.6666666666666</ele><time>2026-04-29T13:07:39.006Z</time></trkpt><trkpt lat="40.10093384252348" lon="9.511236153787932"><ele>890.8333333333333</ele><time>2026-04-29T13:07:40.005Z</time></trkpt><trkpt lat="40.10092334666409" lon="9.511325942565007"><ele>892.0</ele><time>2026-04-29T13:07:41.005Z</time></trkpt><trkpt lat="40.10090305992887" lon="9.511412404110507"><ele>892.0</ele><time>2026-04-29T13:07:42.006Z</time></trkpt><trkpt lat="40.10086153013325" lon="9.511564192776097"><ele>892.0</ele><time>2026-04-29T13:07:44.006Z</time></trkpt><trkpt lat="40.10086904090977" lon="9.511654673757226"><ele>892.0</ele><time>2026-04-29T13:07:45.006Z</time></trkpt><trkpt lat="40.100918357832406" lon="9.511749190016223"><ele>892.0</ele><time>2026-04-29T13:07:46.006Z</time></trkpt><trkpt lat="40.10099201041365" lon="9.511856339613038"><ele>892.0</ele><time>2026-04-29T13:07:48.007Z</time></trkpt><trkpt lat="40.1010327203781" lon="9.51192027935776"><ele>887.4999999999999</ele><time>2026-04-29T13:07:49.006Z</time></trkpt><trkpt lat="40.10107526639706" lon="9.51199907567259"><ele>883.0</ele><time>2026-04-29T13:07:50.006Z</time></trkpt><trkpt lat="40.10109731678174" lon="9.512179749414075"><ele>878.5</ele><time>2026-04-29T13:07:52.006Z</time></trkpt><trkpt lat="40.10113092592834" lon="9.51227588094114"><ele>874.0</ele><time>2026-04-29T13:07:53.006Z</time></trkpt><trkpt lat="40.10117239011759" lon="9.51234658002882"><ele>869.4999999999999</ele><time>2026-04-29T13:07:54.006Z</time></trkpt><trkpt lat="40.10122940068245" lon="9.512415679813339"><ele>865.0</ele><time>2026-04-29T13:07:55.006Z</time></trkpt><trkpt lat="40.10130812685504" lon="9.512473611623832"><ele>864.9999999999999</ele><time>2026-04-29T13:07:56.006Z</time></trkpt><trkpt lat="40.101369344738785" lon="9.512541765341705"><ele>865.0</ele><time>2026-04-29T13:07:57.006Z</time></trkpt><trkpt lat="40.10140592634366" lon="9.512616872469309"><ele>865.0</ele><time>2026-04-29T13:07:58.006Z</time></trkpt><trkpt lat="40.10144194869711" lon="9.512715445291422"><ele>865.0</ele><time>2026-04-29T13:07:59.006Z</time></trkpt><trkpt lat="40.101506085919894" lon="9.512796867118489"><ele>864.9999999999999</ele><time>2026-04-29T13:08:00.006Z</time></trkpt><trkpt lat="40.101563855062295" lon="9.512859164460313"><ele>865.0</ele><time>2026-04-29T13:08:01.006Z</time></trkpt><trkpt lat="40.10162940791666" lon="9.512934212481111"><ele>867.4</ele><time>2026-04-29T13:08:02.006Z</time></trkpt><trkpt lat="40.101694025402345" lon="9.513013721234199"><ele>869.8</ele><time>2026-04-29T13:08:03.006Z</time></trkpt><trkpt lat="40.10172550042342" lon="9.513092817658206"><ele>872.2</ele><time>2026-04-29T13:08:04.006Z</time></trkpt><trkpt lat="40.101730181074245" lon="9.513215258552384"><ele>874.6</ele><time>2026-04-29T13:08:05.006Z</time></trkpt><trkpt lat="40.101809919110984" lon="9.513361196437039"><ele>877.0</ele><time>2026-04-29T13:08:07.006Z</time></trkpt><trkpt lat="40.101896962983" lon="9.513416110301165"><ele>876.9999999999999</ele><time>2026-04-29T13:08:08.007Z</time></trkpt><trkpt lat="40.101959903690265" lon="9.513481967435101"><ele>877.0</ele><time>2026-04-29T13:08:09.007Z</time></trkpt><trkpt lat="40.10202228918634" lon="9.513555548324204"><ele>877.0</ele><time>2026-04-29T13:08:10.007Z</time></trkpt><trkpt lat="40.10207489468246" lon="9.513645186980918"><ele>877.0</ele><time>2026-04-29T13:08:11.007Z</time></trkpt><trkpt lat="40.10213657696919" lon="9.513739836362305"><ele>876.9999999999999</ele><time>2026-04-29T13:08:12.007Z</time></trkpt><trkpt lat="40.10220036099855" lon="9.513814353657578"><ele>877.0</ele><time>2026-04-29T13:08:13.007Z</time></trkpt><trkpt lat="40.10227695888421" lon="9.513855879332366"><ele>874.8</ele><time>2026-04-29T13:08:14.007Z</time></trkpt><trkpt lat="40.10236761731012" lon="9.513849178859981"><ele>872.6</ele><time>2026-04-29T13:08:15.007Z</time></trkpt><trkpt lat="40.10245739625223" lon="9.513868544018278"><ele>870.3999999999999</ele><time>2026-04-29T13:08:16.007Z</time></trkpt><trkpt lat="40.10255409990922" lon="9.513901222184371"><ele>868.1999999999999</ele><time>2026-04-29T13:08:17.007Z</time></trkpt><trkpt lat="40.102645277619345" lon="9.513933420997317"><ele>866.0</ele><time>2026-04-29T13:08:18.007Z</time></trkpt><trkpt lat="40.102734054919814" lon="9.513963773666097"><ele>866.0000000000001</ele><time>2026-04-29T13:08:19.007Z</time></trkpt><trkpt lat="40.10281849069499" lon="9.513994871811802"><ele>866.0</ele><time>2026-04-29T13:08:20.007Z</time></trkpt><trkpt lat="40.102897953222666" lon="9.514025859524178"><ele>866.0</ele><time>2026-04-29T13:08:21.007Z</time></trkpt><trkpt lat="40.102980768213556" lon="9.514048458758747"><ele>866.0</ele><time>2026-04-29T13:08:22.007Z</time></trkpt><trkpt lat="40.10306445851176" lon="9.51406000072223"><ele>866.0000000000001</ele><time>2026-04-29T13:08:23.007Z</time></trkpt><trkpt lat="40.103142391996286" lon="9.514051078942044"><ele>866.0</ele><time>2026-04-29T13:08:24.007Z</time></trkpt><trkpt lat="40.103227323872915" lon="9.514062153463525"><ele>866.8</ele><time>2026-04-29T13:08:25.007Z</time></trkpt><trkpt lat="40.1033107402167" lon="9.514039799604623"><ele>867.5999999999999</ele><time>2026-04-29T13:08:26.007Z</time></trkpt><trkpt lat="40.1034162437401" lon="9.51402462237749"><ele>868.4</ele><time>2026-04-29T13:08:27.007Z</time></trkpt><trkpt lat="40.10351346831655" lon="9.514005247413385"><ele>869.2</ele><time>2026-04-29T13:08:28.007Z</time></trkpt><trkpt lat="40.103620754747666" lon="9.51399272970504"><ele>870.0</ele><time>2026-04-29T13:08:29.007Z</time></trkpt><trkpt lat="40.10372625524393" lon="9.513968909661159"><ele>870.0</ele><time>2026-04-29T13:08:30.007Z</time></trkpt><trkpt lat="40.10383557725582" lon="9.513943417109035"><ele>870.0</ele><time>2026-04-29T13:08:31.007Z</time></trkpt><trkpt lat="40.10393721780183" lon="9.513931834984131"><ele>870.0</ele><time>2026-04-29T13:08:32.007Z</time></trkpt><trkpt lat="40.10403726282754" lon="9.513924042984325"><ele>870.0</ele><time>2026-04-29T13:08:33.007Z</time></trkpt><trkpt lat="40.1041408013726" lon="9.513917533627703"><ele>870.0</ele><time>2026-04-29T13:08:34.007Z</time></trkpt><trkpt lat="40.10425184268627" lon="9.513891607493996"><ele>868.0</ele><time>2026-04-29T13:08:35.007Z</time></trkpt><trkpt lat="40.10436292364226" lon="9.513889233661862"><ele>866.0</ele><time>2026-04-29T13:08:36.007Z</time></trkpt><trkpt lat="40.10448569740014" lon="9.513885814202974"><ele>864.0</ele><time>2026-04-29T13:08:37.007Z</time></trkpt><trkpt lat="40.10460528219785" lon="9.513888385051516"><ele>862.0</ele><time>2026-04-29T13:08:38.007Z</time></trkpt><trkpt lat="40.10472100914972" lon="9.513892371809767"><ele>862.0</ele><time>2026-04-29T13:08:39.007Z</time></trkpt><trkpt lat="40.104844878853534" lon="9.513893838701145"><ele>862.0</ele><time>2026-04-29T13:08:40.007Z</time></trkpt><trkpt lat="40.10496704793758" lon="9.513895093549781"><ele>862.0</ele><time>2026-04-29T13:08:41.007Z</time></trkpt><trkpt lat="40.10508487548708" lon="9.513884801616513"><ele>862.0</ele><time>2026-04-29T13:08:42.007Z</time></trkpt><trkpt lat="40.10518889680786" lon="9.513892603870078"><ele>861.8</ele><time>2026-04-29T13:08:43.007Z</time></trkpt><trkpt lat="40.10530233497097" lon="9.513884289048077"><ele>861.6</ele><time>2026-04-29T13:08:44.007Z</time></trkpt><trkpt lat="40.105403848805295" lon="9.513905177501655"><ele>861.3999999999999</ele><time>2026-04-29T13:08:45.007Z</time></trkpt><trkpt lat="40.10548307413646" lon="9.513919243894959"><ele>861.1999999999999</ele><time>2026-04-29T13:08:46.007Z</time></trkpt><trkpt lat="40.105561275275406" lon="9.513953508299593"><ele>861.0</ele><time>2026-04-29T13:08:47.007Z</time></trkpt><trkpt lat="40.105692078791506" lon="9.514013225818818"><ele>860.4</ele><time>2026-04-29T13:08:48.007Z</time></trkpt><trkpt lat="40.10580448530386" lon="9.514009026761514"><ele>859.8</ele><time>2026-04-29T13:08:49.007Z</time></trkpt><trkpt lat="40.10591511407166" lon="9.514007484776764"><ele>859.1999999999999</ele><time>2026-04-29T13:08:50.007Z</time></trkpt><trkpt lat="40.106025303737766" lon="9.51402747982127"><ele>858.5999999999999</ele><time>2026-04-29T13:08:51.007Z</time></trkpt><trkpt lat="40.10613066508998" lon="9.514058166372147"><ele>858.0</ele><time>2026-04-29T13:08:52.007Z</time></trkpt><trkpt lat="40.106257537824526" lon="9.514141973380456"><ele>858.0</ele><time>2026-04-29T13:08:53.007Z</time></trkpt><trkpt lat="40.10645296872145" lon="9.514203679924915"><ele>858.0</ele><time>2026-04-29T13:08:54.007Z</time></trkpt><trkpt lat="40.10661988991487" lon="9.514222174240627"><ele>858.0</ele><time>2026-04-29T13:08:55.007Z</time></trkpt><trkpt lat="40.106755958413174" lon="9.514243402255248"><ele>864.0</ele><time>2026-04-29T13:08:56.007Z</time></trkpt><trkpt lat="40.106883390163034" lon="9.514261201035964"><ele>870.0</ele><time>2026-04-29T13:08:57.007Z</time></trkpt><trkpt lat="40.107019517736475" lon="9.514309531048932"><ele>876.0</ele><time>2026-04-29T13:08:58.007Z</time></trkpt><trkpt lat="40.10714437908807" lon="9.514334770972814"><ele>882.0</ele><time>2026-04-29T13:08:59.007Z</time></trkpt><trkpt lat="40.107277002644295" lon="9.514360042652985"><ele>882.0</ele><time>2026-04-29T13:09:00.007Z</time></trkpt><trkpt lat="40.10740512783856" lon="9.514370719982916"><ele>882.0</ele><time>2026-04-29T13:09:01.007Z</time></trkpt><trkpt lat="40.10753930271131" lon="9.514373374191404"><ele>882.0</ele><time>2026-04-29T13:09:02.007Z</time></trkpt><trkpt lat="40.10766981503888" lon="9.514377180919825"><ele>882.0</ele><time>2026-04-29T13:09:03.007Z</time></trkpt><trkpt lat="40.10780178647664" lon="9.514379634853988"><ele>885.25</ele><time>2026-04-29T13:09:04.007Z</time></trkpt><trkpt lat="40.10793348791027" lon="9.514385377624414"><ele>888.5</ele><time>2026-04-29T13:09:05.007Z</time></trkpt><trkpt lat="40.10806885883844" lon="9.514383218604323"><ele>891.75</ele><time>2026-04-29T13:09:06.007Z</time></trkpt><trkpt lat="40.10821251502727" lon="9.514395874057618"><ele>895.0</ele><time>2026-04-29T13:09:07.007Z</time></trkpt><trkpt lat="40.108342742663346" lon="9.514409220198427"><ele>895.0</ele><time>2026-04-29T13:09:08.007Z</time></trkpt><trkpt lat="40.108478860942995" lon="9.514410434832241"><ele>895.0</ele><time>2026-04-29T13:09:09.007Z</time></trkpt><trkpt lat="40.10861531498881" lon="9.514404232472241"><ele>895.0</ele><time>2026-04-29T13:09:10.007Z</time></trkpt><trkpt lat="40.108750740212905" lon="9.514376135363543"><ele>895.0</ele><time>2026-04-29T13:09:11.007Z</time></trkpt><trkpt lat="40.10888451121253" lon="9.514358912796515"><ele>895.0</ele><time>2026-04-29T13:09:12.007Z</time></trkpt><trkpt lat="40.109003992776394" lon="9.514325733448775"><ele>895.0</ele><time>2026-04-29T13:09:13.007Z</time></trkpt><trkpt lat="40.1091236040211" lon="9.514296110135296"><ele>895.0</ele><time>2026-04-29T13:09:14.007Z</time></trkpt><trkpt lat="40.10924935037551" lon="9.514257236748477"><ele>895.0</ele><time>2026-04-29T13:09:15.007Z</time></trkpt><trkpt lat="40.10937116882392" lon="9.514244864948418"><ele>892.25</ele><time>2026-04-29T13:09:16.007Z</time></trkpt><trkpt lat="40.109497825042546" lon="9.514241495558341"><ele>889.5</ele><time>2026-04-29T13:09:17.007Z</time></trkpt><trkpt lat="40.10962601342851" lon="9.514253696327607"><ele>886.75</ele><time>2026-04-29T13:09:18.007Z</time></trkpt><trkpt lat="40.109753313642436" lon="9.51427065895636"><ele>884.0</ele><time>2026-04-29T13:09:19.007Z</time></trkpt><trkpt lat="40.1098727748181" lon="9.514271733555148"><ele>889.75</ele><time>2026-04-29T13:09:20.007Z</time></trkpt><trkpt lat="40.109981092492994" lon="9.51426973793435"><ele>895.5</ele><time>2026-04-29T13:09:21.007Z</time></trkpt><trkpt lat="40.11010795185844" lon="9.514247956969168"><ele>901.25</ele><time>2026-04-29T13:09:22.007Z</time></trkpt><trkpt lat="40.110228573793314" lon="9.51425539981309"><ele>907.0</ele><time>2026-04-29T13:09:23.007Z</time></trkpt><trkpt lat="40.110344173147006" lon="9.514268030355243"><ele>907.0</ele><time>2026-04-29T13:09:24.007Z</time></trkpt><trkpt lat="40.11046470379972" lon="9.51428481661044"><ele>907.0</ele><time>2026-04-29T13:09:25.007Z</time></trkpt><trkpt lat="40.11057700303546" lon="9.514316304686727"><ele>907.0</ele><time>2026-04-29T13:09:26.007Z</time></trkpt><trkpt lat="40.110688319889974" lon="9.514326197704058"><ele>907.0</ele><time>2026-04-29T13:09:27.007Z</time></trkpt><trkpt lat="40.11079429018354" lon="9.514305113015121"><ele>908.0</ele><time>2026-04-29T13:09:28.007Z</time></trkpt><trkpt lat="40.110908899121185" lon="9.514282337184984"><ele>909.0</ele><time>2026-04-29T13:09:29.007Z</time></trkpt><trkpt lat="40.11103199657304" lon="9.514272664089187"><ele>910.0</ele><time>2026-04-29T13:09:30.007Z</time></trkpt><trkpt lat="40.11114389150747" lon="9.514264301607264"><ele>911.0</ele><time>2026-04-29T13:09:31.007Z</time></trkpt><trkpt lat="40.11127342623271" lon="9.514262905379303"><ele>911.0</ele><time>2026-04-29T13:09:32.007Z</time></trkpt><trkpt lat="40.11139126845667" lon="9.514262700672575"><ele>911.0</ele><time>2026-04-29T13:09:33.007Z</time></trkpt><trkpt lat="40.111513614262996" lon="9.514266069041549"><ele>911.0</ele><time>2026-04-29T13:09:34.007Z</time></trkpt><trkpt lat="40.111621863027615" lon="9.514279286909321"><ele>911.0</ele><time>2026-04-29T13:09:35.007Z</time></trkpt><trkpt lat="40.11172754612769" lon="9.514310712766662"><ele>911.6666666666667</ele><time>2026-04-29T13:09:36.007Z</time></trkpt><trkpt lat="40.11183027716577" lon="9.514360061780073"><ele>912.3333333333334</ele><time>2026-04-29T13:09:37.007Z</time></trkpt><trkpt lat="40.11190732155427" lon="9.514425917810641"><ele>913.0</ele><time>2026-04-29T13:09:38.007Z</time></trkpt><trkpt lat="40.11197704864384" lon="9.514464658534877"><ele>913.6666666666667</ele><time>2026-04-29T13:09:39.008Z</time></trkpt><trkpt lat="40.1120349458055" lon="9.514516677783805"><ele>914.3333333333334</ele><time>2026-04-29T13:09:40.008Z</time></trkpt><trkpt lat="40.11208619108777" lon="9.514566138234663"><ele>915.0</ele><time>2026-04-29T13:09:41.008Z</time></trkpt><trkpt lat="40.112156989340406" lon="9.514646767675385"><ele>914.8</ele><time>2026-04-29T13:09:43.008Z</time></trkpt><trkpt lat="40.112195398109044" lon="9.514730293739944"><ele>914.6</ele><time>2026-04-29T13:09:46.006Z</time></trkpt><trkpt lat="40.11235980673136" lon="9.514673184008242"><ele>914.4000000000001</ele><time>2026-04-29T13:09:58.007Z</time></trkpt><trkpt lat="40.11245680045887" lon="9.514592609013722"><ele>914.2</ele><time>2026-04-29T13:10:00.007Z</time></trkpt><trkpt lat="40.11250970198943" lon="9.514539494686097"><ele>914.0</ele><time>2026-04-29T13:10:01.007Z</time></trkpt><trkpt lat="40.112597132636566" lon="9.514452944977624"><ele>914.0000000000001</ele><time>2026-04-29T13:10:03.007Z</time></trkpt><trkpt lat="40.11265155149025" lon="9.514399377264564"><ele>914.0</ele><time>2026-04-29T13:10:04.007Z</time></trkpt><trkpt lat="40.11271438415655" lon="9.514337685117823"><ele>914.0</ele><time>2026-04-29T13:10:05.007Z</time></trkpt><trkpt lat="40.11278361298532" lon="9.514270084243343"><ele>914.0</ele><time>2026-04-29T13:10:06.007Z</time></trkpt><trkpt lat="40.11285102206938" lon="9.51420355040596"><ele>914.0000000000001</ele><time>2026-04-29T13:10:07.007Z</time></trkpt><trkpt lat="40.1129174530865" lon="9.514134515821754"><ele>914.0</ele><time>2026-04-29T13:10:08.007Z</time></trkpt><trkpt lat="40.112989217533155" lon="9.51405565271211"><ele>914.0</ele><time>2026-04-29T13:10:09.007Z</time></trkpt><trkpt lat="40.113062894292376" lon="9.513988442536348"><ele>914.0000000000001</ele><time>2026-04-29T13:10:10.007Z</time></trkpt><trkpt lat="40.113140601115504" lon="9.513898827295877"><ele>914.0000000000001</ele><time>2026-04-29T13:10:11.007Z</time></trkpt><trkpt lat="40.113211417518755" lon="9.51381401834955"><ele>914.0</ele><time>2026-04-29T13:10:12.007Z</time></trkpt><trkpt lat="40.11329277259976" lon="9.513733388058242"><ele>914.0</ele><time>2026-04-29T13:10:13.007Z</time></trkpt><trkpt lat="40.113377672849275" lon="9.513646967069624"><ele>916.0</ele><time>2026-04-29T13:10:14.007Z</time></trkpt><trkpt lat="40.113458465480235" lon="9.513553997088417"><ele>918.0000000000001</ele><time>2026-04-29T13:10:15.007Z</time></trkpt><trkpt lat="40.11354772885757" lon="9.513474874699563"><ele>920.0000000000001</ele><time>2026-04-29T13:10:16.007Z</time></trkpt><trkpt lat="40.11365085796227" lon="9.513418092793746"><ele>922.0</ele><time>2026-04-29T13:10:17.007Z</time></trkpt><trkpt lat="40.1137603326667" lon="9.513362740991386"><ele>924.0</ele><time>2026-04-29T13:10:18.007Z</time></trkpt><trkpt lat="40.113870554032296" lon="9.513294392085326"><ele>924.0</ele><time>2026-04-29T13:10:19.007Z</time></trkpt><trkpt lat="40.11397850370888" lon="9.513226695587457"><ele>924.0</ele><time>2026-04-29T13:10:20.007Z</time></trkpt><trkpt lat="40.114088750663555" lon="9.513155451502847"><ele>924.0</ele><time>2026-04-29T13:10:21.007Z</time></trkpt><trkpt lat="40.11420239881195" lon="9.513082354625189"><ele>924.0</ele><time>2026-04-29T13:10:22.007Z</time></trkpt><trkpt lat="40.11431664212392" lon="9.513011881939025"><ele>920.25</ele><time>2026-04-29T13:10:23.007Z</time></trkpt><trkpt lat="40.11442823768936" lon="9.51295508160655"><ele>916.5</ele><time>2026-04-29T13:10:24.007Z</time></trkpt><trkpt lat="40.11455151009302" lon="9.512891732835598"><ele>912.75</ele><time>2026-04-29T13:10:25.007Z</time></trkpt><trkpt lat="40.11467871650995" lon="9.512825608363578"><ele>909.0</ele><time>2026-04-29T13:10:26.007Z</time></trkpt><trkpt lat="40.1148079241515" lon="9.512757602385214"><ele>913.25</ele><time>2026-04-29T13:10:27.007Z</time></trkpt><trkpt lat="40.114934786094835" lon="9.512685520833353"><ele>917.5</ele><time>2026-04-29T13:10:28.007Z</time></trkpt><trkpt lat="40.11506995339682" lon="9.512614020557418"><ele>921.75</ele><time>2026-04-29T13:10:29.007Z</time></trkpt><trkpt lat="40.11520375347586" lon="9.512542961917545"><ele>926.0</ele><time>2026-04-29T13:10:30.007Z</time></trkpt><trkpt lat="40.11533698125143" lon="9.512473369790195"><ele>926.0</ele><time>2026-04-29T13:10:31.007Z</time></trkpt><trkpt lat="40.11547447086327" lon="9.512409581946088"><ele>926.0</ele><time>2026-04-29T13:10:32.007Z</time></trkpt><trkpt lat="40.11560306538052" lon="9.5123592427167"><ele>926.0</ele><time>2026-04-29T13:10:33.007Z</time></trkpt><trkpt lat="40.115734251796624" lon="9.51231714738232"><ele>926.0</ele><time>2026-04-29T13:10:34.007Z</time></trkpt><trkpt lat="40.115864418743186" lon="9.51228087190946"><ele>922.75</ele><time>2026-04-29T13:10:35.007Z</time></trkpt><trkpt lat="40.115982845555834" lon="9.512224087717623"><ele>919.5</ele><time>2026-04-29T13:10:36.007Z</time></trkpt><trkpt lat="40.11611283084993" lon="9.512179615406957"><ele>916.25</ele><time>2026-04-29T13:10:37.007Z</time></trkpt><trkpt lat="40.116224509878144" lon="9.512118447391263"><ele>913.0</ele><time>2026-04-29T13:10:38.007Z</time></trkpt><trkpt lat="40.11633386616683" lon="9.512034948803691"><ele>919.0</ele><time>2026-04-29T13:10:39.007Z</time></trkpt><trkpt lat="40.116441667345796" lon="9.511973101361718"><ele>925.0</ele><time>2026-04-29T13:10:40.007Z</time></trkpt><trkpt lat="40.11656226804584" lon="9.511930433323114"><ele>931.0</ele><time>2026-04-29T13:10:41.007Z</time></trkpt><trkpt lat="40.11667627743017" lon="9.511914234802385"><ele>937.0</ele><time>2026-04-29T13:10:42.007Z</time></trkpt><trkpt lat="40.11678483415853" lon="9.511891070530249"><ele>937.0</ele><time>2026-04-29T13:10:43.007Z</time></trkpt><trkpt lat="40.11689703219935" lon="9.511874236006564"><ele>937.0</ele><time>2026-04-29T13:10:44.007Z</time></trkpt><trkpt lat="40.11702117359421" lon="9.51183584026074"><ele>937.0</ele><time>2026-04-29T13:10:45.007Z</time></trkpt><trkpt lat="40.11715666957605" lon="9.511791071251233"><ele>937.0</ele><time>2026-04-29T13:10:46.007Z</time></trkpt><trkpt lat="40.11727436949386" lon="9.511705327267515"><ele>937.0</ele><time>2026-04-29T13:10:47.007Z</time></trkpt><trkpt lat="40.117396090447336" lon="9.511638732336362"><ele>937.0</ele><time>2026-04-29T13:10:48.007Z</time></trkpt><trkpt lat="40.11751163744346" lon="9.511555214914013"><ele>937.0</ele><time>2026-04-29T13:10:49.007Z</time></trkpt><trkpt lat="40.1176319749433" lon="9.51146193986817"><ele>937.0</ele><time>2026-04-29T13:10:50.007Z</time></trkpt><trkpt lat="40.11775086210072" lon="9.511370243564716"><ele>932.25</ele><time>2026-04-29T13:10:51.007Z</time></trkpt><trkpt lat="40.117870749220344" lon="9.511283147640931"><ele>927.5</ele><time>2026-04-29T13:10:52.008Z</time></trkpt><trkpt lat="40.11797897694808" lon="9.511188169342539"><ele>922.75</ele><time>2026-04-29T13:10:53.008Z</time></trkpt><trkpt lat="40.11809294866695" lon="9.511093490131419"><ele>918.0</ele><time>2026-04-29T13:10:54.008Z</time></trkpt><trkpt lat="40.118205531971796" lon="9.510985709447159"><ele>920.0</ele><time>2026-04-29T13:10:55.008Z</time></trkpt><trkpt lat="40.11830456741755" lon="9.51086884072998"><ele>922.0</ele><time>2026-04-29T13:10:56.008Z</time></trkpt><trkpt lat="40.11841040242333" lon="9.51074183892127"><ele>924.0</ele><time>2026-04-29T13:10:57.008Z</time></trkpt><trkpt lat="40.11851359092175" lon="9.510614175678727"><ele>926.0</ele><time>2026-04-29T13:10:58.008Z</time></trkpt><trkpt lat="40.11861889024781" lon="9.510489337144858"><ele>925.75</ele><time>2026-04-29T13:10:59.008Z</time></trkpt><trkpt lat="40.11872499815707" lon="9.51037659899063"><ele>925.5</ele><time>2026-04-29T13:11:00.008Z</time></trkpt><trkpt lat="40.11883448674467" lon="9.51027503256734"><ele>925.25</ele><time>2026-04-29T13:11:01.008Z</time></trkpt><trkpt lat="40.1189566692615" lon="9.51017711238343"><ele>925.0</ele><time>2026-04-29T13:11:02.008Z</time></trkpt><trkpt lat="40.11907340004778" lon="9.510084627927887"><ele>925.0</ele><time>2026-04-29T13:11:03.008Z</time></trkpt><trkpt lat="40.11918477625765" lon="9.509991331994621"><ele>925.0</ele><time>2026-04-29T13:11:04.008Z</time></trkpt><trkpt lat="40.11929210605952" lon="9.509909211427619"><ele>925.0</ele><time>2026-04-29T13:11:05.008Z</time></trkpt><trkpt lat="40.11938062317963" lon="9.509835589725062"><ele>925.0</ele><time>2026-04-29T13:11:06.008Z</time></trkpt><trkpt lat="40.11947903562094" lon="9.509776295748585"><ele>925.0</ele><time>2026-04-29T13:11:07.008Z</time></trkpt><trkpt lat="40.119571849727116" lon="9.509741094231721"><ele>925.0</ele><time>2026-04-29T13:11:08.008Z</time></trkpt><trkpt lat="40.11965461042661" lon="9.50974702042943"><ele>925.0</ele><time>2026-04-29T13:11:09.008Z</time></trkpt><trkpt lat="40.119751158262005" lon="9.509766592239457"><ele>925.0</ele><time>2026-04-29T13:11:10.008Z</time></trkpt><trkpt lat="40.11984663020672" lon="9.509806374639423"><ele>925.0</ele><time>2026-04-29T13:11:11.008Z</time></trkpt><trkpt lat="40.11994789272545" lon="9.509805303415629"><ele>921.5</ele><time>2026-04-29T13:11:12.008Z</time></trkpt><trkpt lat="40.120073304476236" lon="9.509781933807732"><ele>918.0</ele><time>2026-04-29T13:11:13.008Z</time></trkpt><trkpt lat="40.12019974924573" lon="9.509756528660771"><ele>914.5</ele><time>2026-04-29T13:11:14.008Z</time></trkpt><trkpt lat="40.120313047644665" lon="9.509706974285706"><ele>911.0</ele><time>2026-04-29T13:11:15.008Z</time></trkpt><trkpt lat="40.12044715521677" lon="9.509674065768527"><ele>911.0</ele><time>2026-04-29T13:11:16.008Z</time></trkpt><trkpt lat="40.1205819652856" lon="9.509657677260096"><ele>911.0</ele><time>2026-04-29T13:11:17.008Z</time></trkpt><trkpt lat="40.12072412671028" lon="9.509640114583592"><ele>911.0</ele><time>2026-04-29T13:11:18.008Z</time></trkpt><trkpt lat="40.12086470175916" lon="9.509635086886034"><ele>911.0</ele><time>2026-04-29T13:11:19.008Z</time></trkpt><trkpt lat="40.12101479898898" lon="9.50961717736703"><ele>910.0</ele><time>2026-04-29T13:11:20.008Z</time></trkpt><trkpt lat="40.12115124478372" lon="9.509602792974905"><ele>909.0</ele><time>2026-04-29T13:11:21.008Z</time></trkpt><trkpt lat="40.121294017747154" lon="9.509590559821739"><ele>908.0</ele><time>2026-04-29T13:11:22.008Z</time></trkpt><trkpt lat="40.1214349761357" lon="9.5095740292874"><ele>907.0</ele><time>2026-04-29T13:11:23.008Z</time></trkpt><trkpt lat="40.12158807087278" lon="9.509556692283821"><ele>922.5</ele><time>2026-04-29T13:11:24.008Z</time></trkpt><trkpt lat="40.12173008570519" lon="9.50954633780412"><ele>938.0</ele><time>2026-04-29T13:11:25.008Z</time></trkpt><trkpt lat="40.12186419932577" lon="9.509552493938184"><ele>953.5</ele><time>2026-04-29T13:11:26.008Z</time></trkpt><trkpt lat="40.121991040149254" lon="9.509563490370317"><ele>969.0</ele><time>2026-04-29T13:11:27.008Z</time></trkpt><trkpt lat="40.122123253578785" lon="9.509559515532986"><ele>969.0</ele><time>2026-04-29T13:11:28.008Z</time></trkpt><trkpt lat="40.122248815937255" lon="9.509569255647316"><ele>969.0</ele><time>2026-04-29T13:11:29.008Z</time></trkpt><trkpt lat="40.12236842249125" lon="9.509543553445965"><ele>969.0</ele><time>2026-04-29T13:11:30.008Z</time></trkpt><trkpt lat="40.122504577249124" lon="9.509511471813857"><ele>969.0</ele><time>2026-04-29T13:11:31.008Z</time></trkpt><trkpt lat="40.12265219924183" lon="9.509513101360511"><ele>967.75</ele><time>2026-04-29T13:11:32.008Z</time></trkpt><trkpt lat="40.122785630188304" lon="9.509480466661278"><ele>966.5</ele><time>2026-04-29T13:11:33.008Z</time></trkpt><trkpt lat="40.12291454532537" lon="9.509452163210032"><ele>965.25</ele><time>2026-04-29T13:11:34.008Z</time></trkpt><trkpt lat="40.123046454277414" lon="9.509436960848237"><ele>964.0</ele><time>2026-04-29T13:11:35.008Z</time></trkpt><trkpt lat="40.123176892336616" lon="9.509421901049853"><ele>961.5</ele><time>2026-04-29T13:11:36.008Z</time></trkpt><trkpt lat="40.12329822656819" lon="9.50940595963091"><ele>959.0</ele><time>2026-04-29T13:11:37.008Z</time></trkpt><trkpt lat="40.12343254190432" lon="9.509382337590187"><ele>956.5</ele><time>2026-04-29T13:11:38.008Z</time></trkpt><trkpt lat="40.123565485322885" lon="9.509352040324375"><ele>954.0</ele><time>2026-04-29T13:11:39.008Z</time></trkpt><trkpt lat="40.123699385974994" lon="9.509322167753984"><ele>954.0</ele><time>2026-04-29T13:11:40.008Z</time></trkpt><trkpt lat="40.12383144730792" lon="9.509287582912172"><ele>954.0</ele><time>2026-04-29T13:11:41.008Z</time></trkpt><trkpt lat="40.12395660908111" lon="9.50926097770498"><ele>954.0</ele><time>2026-04-29T13:11:42.008Z</time></trkpt><trkpt lat="40.124072295357514" lon="9.509230790899688"><ele>954.0</ele><time>2026-04-29T13:11:43.008Z</time></trkpt><trkpt lat="40.12416878455721" lon="9.509209249653273"><ele>952.0</ele><time>2026-04-29T13:11:44.008Z</time></trkpt><trkpt lat="40.12426094054973" lon="9.509184588953023"><ele>950.0000000000001</ele><time>2026-04-29T13:11:45.008Z</time></trkpt><trkpt lat="40.124349969114505" lon="9.509173999406496"><ele>948.0000000000001</ele><time>2026-04-29T13:11:46.008Z</time></trkpt><trkpt lat="40.12443773010777" lon="9.50911827858581"><ele>946.0</ele><time>2026-04-29T13:11:47.008Z</time></trkpt><trkpt lat="40.12453472049503" lon="9.509066864283184"><ele>944.0</ele><time>2026-04-29T13:11:48.008Z</time></trkpt><trkpt lat="40.12463066517756" lon="9.509009566995836"><ele>944.0</ele><time>2026-04-29T13:11:49.008Z</time></trkpt><trkpt lat="40.12473342279661" lon="9.508945279654093"><ele>944.0000000000001</ele><time>2026-04-29T13:11:50.008Z</time></trkpt><trkpt lat="40.12483725911821" lon="9.50889550457717"><ele>944.0000000000001</ele><time>2026-04-29T13:11:51.007Z</time></trkpt><trkpt lat="40.12493337830066" lon="9.508853194169362"><ele>944.0</ele><time>2026-04-29T13:11:52.007Z</time></trkpt><trkpt lat="40.12504979661472" lon="9.50881935198572"><ele>944.0</ele><time>2026-04-29T13:11:53.007Z</time></trkpt><trkpt lat="40.125162219949246" lon="9.508788141193362"><ele>939.8000000000001</ele><time>2026-04-29T13:11:54.008Z</time></trkpt><trkpt lat="40.12527294120551" lon="9.508784726986908"><ele>935.6000000000001</ele><time>2026-04-29T13:11:55.006Z</time></trkpt><trkpt lat="40.12538644682625" lon="9.5087885725422"><ele>931.4</ele><time>2026-04-29T13:11:56.007Z</time></trkpt><trkpt lat="40.125488422753016" lon="9.508772965581848"><ele>927.2</ele><time>2026-04-29T13:11:57.007Z</time></trkpt><trkpt lat="40.12557499525941" lon="9.508738695722933"><ele>923.0</ele><time>2026-04-29T13:11:58.007Z</time></trkpt><trkpt lat="40.12568454210852" lon="9.508685956157127"><ele>934.25</ele><time>2026-04-29T13:11:59.007Z</time></trkpt><trkpt lat="40.125804154481315" lon="9.508646916781096"><ele>945.5</ele><time>2026-04-29T13:12:00.007Z</time></trkpt><trkpt lat="40.12592754692495" lon="9.508605382021845"><ele>956.75</ele><time>2026-04-29T13:12:01.008Z</time></trkpt><trkpt lat="40.1260572470786" lon="9.508563848192237"><ele>968.0</ele><time>2026-04-29T13:12:02.008Z</time></trkpt><trkpt lat="40.126175216093415" lon="9.508513035124661"><ele>968.0</ele><time>2026-04-29T13:12:03.008Z</time></trkpt><trkpt lat="40.126297822857275" lon="9.508469723177653"><ele>968.0</ele><time>2026-04-29T13:12:04.007Z</time></trkpt><trkpt lat="40.12642293086465" lon="9.508435516118972"><ele>968.0</ele><time>2026-04-29T13:12:05.007Z</time></trkpt><trkpt lat="40.12654251306486" lon="9.508381677036024"><ele>968.0</ele><time>2026-04-29T13:12:06.007Z</time></trkpt><trkpt lat="40.12667191424262" lon="9.5083340560297"><ele>964.5</ele><time>2026-04-29T13:12:07.007Z</time></trkpt><trkpt lat="40.126804823968854" lon="9.508299716569843"><ele>961.0</ele><time>2026-04-29T13:12:08.007Z</time></trkpt><trkpt lat="40.12692635135186" lon="9.508234061456209"><ele>957.5</ele><time>2026-04-29T13:12:09.007Z</time></trkpt><trkpt lat="40.12705120884786" lon="9.508174468721913"><ele>954.0</ele><time>2026-04-29T13:12:10.007Z</time></trkpt><trkpt lat="40.127183051904524" lon="9.508127308757295"><ele>954.0</ele><time>2026-04-29T13:12:11.007Z</time></trkpt><trkpt lat="40.12731872066659" lon="9.508083535924884"><ele>954.0</ele><time>2026-04-29T13:12:12.007Z</time></trkpt><trkpt lat="40.127461021340764" lon="9.508041928803674"><ele>954.0</ele><time>2026-04-29T13:12:13.007Z</time></trkpt><trkpt lat="40.12759345315276" lon="9.50799477747782"><ele>954.0</ele><time>2026-04-29T13:12:14.007Z</time></trkpt><trkpt lat="40.127725239779515" lon="9.507949361709057"><ele>958.5</ele><time>2026-04-29T13:12:15.007Z</time></trkpt><trkpt lat="40.127861551522045" lon="9.50790119826469"><ele>963.0</ele><time>2026-04-29T13:12:16.007Z</time></trkpt><trkpt lat="40.12799559345067" lon="9.507857234040594"><ele>967.5</ele><time>2026-04-29T13:12:17.007Z</time></trkpt><trkpt lat="40.12812376333235" lon="9.507818589912084"><ele>972.0</ele><time>2026-04-29T13:12:18.007Z</time></trkpt><trkpt lat="40.12825767712447" lon="9.50778753865187"><ele>972.0</ele><time>2026-04-29T13:12:19.007Z</time></trkpt><trkpt lat="40.128385648574756" lon="9.507763101299881"><ele>972.0</ele><time>2026-04-29T13:12:20.007Z</time></trkpt><trkpt lat="40.12850970445266" lon="9.507736269043315"><ele>972.0</ele><time>2026-04-29T13:12:21.007Z</time></trkpt><trkpt lat="40.12862953594767" lon="9.507725157051674"><ele>972.0</ele><time>2026-04-29T13:12:22.007Z</time></trkpt><trkpt lat="40.128751835151675" lon="9.507688659472151"><ele>972.0</ele><time>2026-04-29T13:12:23.007Z</time></trkpt><trkpt lat="40.128859477231806" lon="9.507601875232398"><ele>972.0</ele><time>2026-04-29T13:12:24.007Z</time></trkpt><trkpt lat="40.12897496513426" lon="9.507530711207934"><ele>972.0</ele><time>2026-04-29T13:12:25.007Z</time></trkpt><trkpt lat="40.129121637767405" lon="9.50749414801224"><ele>972.0</ele><time>2026-04-29T13:12:26.007Z</time></trkpt><trkpt lat="40.129290625886064" lon="9.507454420444486"><ele>966.6666666666667</ele><time>2026-04-29T13:12:27.007Z</time></trkpt><trkpt lat="40.12946886308736" lon="9.507410847636901"><ele>961.3333333333334</ele><time>2026-04-29T13:12:28.007Z</time></trkpt><trkpt lat="40.12965297441075" lon="9.507356883519687"><ele>956.0</ele><time>2026-04-29T13:12:29.007Z</time></trkpt><trkpt lat="40.12983680388173" lon="9.507297252649147"><ele>951.3333333333334</ele><time>2026-04-29T13:12:30.007Z</time></trkpt><trkpt lat="40.130025821883706" lon="9.50723353083166"><ele>946.6666666666667</ele><time>2026-04-29T13:12:31.007Z</time></trkpt><trkpt lat="40.13020607607564" lon="9.507170894732926"><ele>942.0</ele><time>2026-04-29T13:12:32.007Z</time></trkpt><trkpt lat="40.13001866471641" lon="9.507228424462356"><ele>942.0</ele><time>2026-04-29T13:12:33.007Z</time></trkpt><trkpt lat="40.13014850983424" lon="9.507189387720569"><ele>942.0</ele><time>2026-04-29T13:12:34.007Z</time></trkpt><trkpt lat="40.13028378349944" lon="9.507150356005672"><ele>942.0</ele><time>2026-04-29T13:12:35.007Z</time></trkpt><trkpt lat="40.13040618946058" lon="9.507123784124769"><ele>942.0</ele><time>2026-04-29T13:12:36.007Z</time></trkpt><trkpt lat="40.130537905889845" lon="9.50710979110685"><ele>942.0</ele><time>2026-04-29T13:12:37.007Z</time></trkpt><trkpt lat="40.13067582645555" lon="9.507102233331167"><ele>942.0</ele><time>2026-04-29T13:12:38.007Z</time></trkpt><trkpt lat="40.130809127994524" lon="9.5071019823225"><ele>942.0</ele><time>2026-04-29T13:12:39.007Z</time></trkpt><trkpt lat="40.130950799706376" lon="9.50713892460741"><ele>942.0</ele><time>2026-04-29T13:12:40.007Z</time></trkpt><trkpt lat="40.13108591920143" lon="9.507155681912728"><ele>938.5</ele><time>2026-04-29T13:12:41.007Z</time></trkpt><trkpt lat="40.1312210911997" lon="9.507160319715728"><ele>935.0</ele><time>2026-04-29T13:12:42.007Z</time></trkpt><trkpt lat="40.13135938751185" lon="9.50714527169049"><ele>931.5</ele><time>2026-04-29T13:12:43.007Z</time></trkpt><trkpt lat="40.131501080258424" lon="9.50715229728498"><ele>928.0</ele><time>2026-04-29T13:12:44.007Z</time></trkpt><trkpt lat="40.1316278292201" lon="9.507108278386774"><ele>942.75</ele><time>2026-04-29T13:12:45.007Z</time></trkpt><trkpt lat="40.131763563157605" lon="9.507068559431925"><ele>957.5</ele><time>2026-04-29T13:12:46.007Z</time></trkpt><trkpt lat="40.1318955404993" lon="9.507009383244899"><ele>972.25</ele><time>2026-04-29T13:12:47.007Z</time></trkpt><trkpt lat="40.13202277261092" lon="9.506963344321859"><ele>987.0</ele><time>2026-04-29T13:12:48.007Z</time></trkpt><trkpt lat="40.13215415861946" lon="9.50692298381612"><ele>987.0</ele><time>2026-04-29T13:12:49.007Z</time></trkpt><trkpt lat="40.132323079257745" lon="9.50687118548752"><ele>987.0</ele><time>2026-04-29T13:12:50.149Z</time></trkpt><trkpt lat="40.13247490834394" lon="9.506852895966043"><ele>987.0</ele><time>2026-04-29T13:12:51.143Z</time></trkpt><trkpt lat="40.132627296998606" lon="9.50682551332678"><ele>983.75</ele><time>2026-04-29T13:12:52.144Z</time></trkpt><trkpt lat="40.13278008069382" lon="9.5068514737809"><ele>980.5</ele><time>2026-04-29T13:12:53.149Z</time></trkpt><trkpt lat="40.13292441371147" lon="9.506863618426575"><ele>977.25</ele><time>2026-04-29T13:12:54.148Z</time></trkpt><trkpt lat="40.13303894622146" lon="9.506834037033693"><ele>974.0</ele><time>2026-04-29T13:12:55.143Z</time></trkpt><trkpt lat="40.133172259128045" lon="9.50678969906006"><ele>969.0</ele><time>2026-04-29T13:12:56.144Z</time></trkpt><trkpt lat="40.13329281297813" lon="9.506799804491138"><ele>964.0</ele><time>2026-04-29T13:12:57.007Z</time></trkpt><trkpt lat="40.13341122275006" lon="9.50674386893"><ele>959.0</ele><time>2026-04-29T13:12:58.007Z</time></trkpt><trkpt lat="40.133552423503865" lon="9.506721159928794"><ele>954.0</ele><time>2026-04-29T13:12:59.007Z</time></trkpt><trkpt lat="40.13369315545514" lon="9.506710577152463"><ele>954.0</ele><time>2026-04-29T13:13:00.008Z</time></trkpt><trkpt lat="40.13382765032287" lon="9.506727525606175"><ele>954.0</ele><time>2026-04-29T13:13:01.008Z</time></trkpt><trkpt lat="40.133975005542354" lon="9.506768013150001"><ele>954.0</ele><time>2026-04-29T13:13:02.008Z</time></trkpt><trkpt lat="40.13411886879425" lon="9.50680482883719"><ele>954.0</ele><time>2026-04-29T13:13:03.008Z</time></trkpt><trkpt lat="40.13424532738888" lon="9.506850300753843"><ele>955.5</ele><time>2026-04-29T13:13:04.008Z</time></trkpt><trkpt lat="40.13436995034216" lon="9.506897358172925"><ele>957.0</ele><time>2026-04-29T13:13:05.008Z</time></trkpt><trkpt lat="40.13450281360454" lon="9.506932085069403"><ele>958.5</ele><time>2026-04-29T13:13:06.008Z</time></trkpt><trkpt lat="40.13463645348843" lon="9.506946204659602"><ele>960.0</ele><time>2026-04-29T13:13:07.008Z</time></trkpt><trkpt lat="40.13477675177622" lon="9.506943294371226"><ele>959.75</ele><time>2026-04-29T13:13:08.008Z</time></trkpt><trkpt lat="40.134912548361086" lon="9.50694202453658"><ele>959.5</ele><time>2026-04-29T13:13:09.008Z</time></trkpt><trkpt lat="40.135055766356224" lon="9.506939882026503"><ele>959.25</ele><time>2026-04-29T13:13:10.008Z</time></trkpt><trkpt lat="40.13519295821154" lon="9.506920590729631"><ele>959.0</ele><time>2026-04-29T13:13:11.008Z</time></trkpt><trkpt lat="40.13531772007636" lon="9.506895306671536"><ele>959.0</ele><time>2026-04-29T13:13:12.008Z</time></trkpt><trkpt lat="40.135434807524405" lon="9.506835367640328"><ele>959.0</ele><time>2026-04-29T13:13:13.008Z</time></trkpt><trkpt lat="40.135563689404414" lon="9.506777375818457"><ele>959.0</ele><time>2026-04-29T13:13:14.008Z</time></trkpt><trkpt lat="40.13570768326215" lon="9.506771994770114"><ele>959.0</ele><time>2026-04-29T13:13:15.008Z</time></trkpt><trkpt lat="40.1358311603246" lon="9.50676525260006"><ele>955.25</ele><time>2026-04-29T13:13:16.008Z</time></trkpt><trkpt lat="40.13595653306267" lon="9.506748561260332"><ele>951.5</ele><time>2026-04-29T13:13:17.008Z</time></trkpt><trkpt lat="40.136093684789" lon="9.50673534466633"><ele>947.75</ele><time>2026-04-29T13:13:18.008Z</time></trkpt><trkpt lat="40.13624342816844" lon="9.506693993269451"><ele>944.0</ele><time>2026-04-29T13:13:19.008Z</time></trkpt><trkpt lat="40.136385983641496" lon="9.506656299562941"><ele>944.0</ele><time>2026-04-29T13:13:20.008Z</time></trkpt><trkpt lat="40.1365369967941" lon="9.506607613098616"><ele>944.0</ele><time>2026-04-29T13:13:21.008Z</time></trkpt><trkpt lat="40.13669457878781" lon="9.506556760065038"><ele>944.0</ele><time>2026-04-29T13:13:22.008Z</time></trkpt><trkpt lat="40.13684966820263" lon="9.506508550985822"><ele>941.0</ele><time>2026-04-29T13:13:23.008Z</time></trkpt><trkpt lat="40.13700729856762" lon="9.50645782118853"><ele>938.0</ele><time>2026-04-29T13:13:24.008Z</time></trkpt><trkpt lat="40.13715269341982" lon="9.506418975100116"><ele>935.0</ele><time>2026-04-29T13:13:25.008Z</time></trkpt><trkpt lat="40.137285419041724" lon="9.506352857301552"><ele>929.6666666666667</ele><time>2026-04-29T13:13:26.008Z</time></trkpt><trkpt lat="40.137428497530436" lon="9.506302112844095"><ele>924.3333333333333</ele><time>2026-04-29T13:13:27.008Z</time></trkpt><trkpt lat="40.13761592550448" lon="9.506240249051086"><ele>919.0</ele><time>2026-04-29T13:13:28.148Z</time></trkpt><trkpt lat="40.13778313197006" lon="9.506180640223583"><ele>937.0</ele><time>2026-04-29T13:13:29.144Z</time></trkpt><trkpt lat="40.13793780681192" lon="9.50611568204392"><ele>955.0</ele><time>2026-04-29T13:13:30.149Z</time></trkpt><trkpt lat="40.13807141881577" lon="9.506087131401568"><ele>973.0</ele><time>2026-04-29T13:13:31.008Z</time></trkpt><trkpt lat="40.138216820512646" lon="9.505973424729843"><ele>965.3333333333333</ele><time>2026-04-29T13:13:32.008Z</time></trkpt><trkpt lat="40.13837495443873" lon="9.505894229051211"><ele>957.6666666666667</ele><time>2026-04-29T13:13:33.008Z</time></trkpt><trkpt lat="40.13852823624192" lon="9.505835353324606"><ele>950.0</ele><time>2026-04-29T13:13:34.008Z</time></trkpt><trkpt lat="40.13867363440169" lon="9.50577624268336"><ele>950.0</ele><time>2026-04-29T13:13:35.008Z</time></trkpt><trkpt lat="40.13882890422539" lon="9.505751829085336"><ele>950.0</ele><time>2026-04-29T13:13:36.008Z</time></trkpt><trkpt lat="40.138984800895535" lon="9.505737319316873"><ele>950.0</ele><time>2026-04-29T13:13:37.008Z</time></trkpt><trkpt lat="40.13913699648085" lon="9.505746706495922"><ele>948.3333333333334</ele><time>2026-04-29T13:13:38.008Z</time></trkpt><trkpt lat="40.13929533090431" lon="9.505766244505987"><ele>946.6666666666667</ele><time>2026-04-29T13:13:39.008Z</time></trkpt><trkpt lat="40.13945198576598" lon="9.505780100893876"><ele>945.0</ele><time>2026-04-29T13:13:40.008Z</time></trkpt><trkpt lat="40.13961179935785" lon="9.50579115466469"><ele>945.0</ele><time>2026-04-29T13:13:41.008Z</time></trkpt><trkpt lat="40.13977420124096" lon="9.5057895476858"><ele>945.0</ele><time>2026-04-29T13:13:42.008Z</time></trkpt><trkpt lat="40.139941439161056" lon="9.505792418655483"><ele>945.0</ele><time>2026-04-29T13:13:43.008Z</time></trkpt><trkpt lat="40.14010188868619" lon="9.505797419594437"><ele>947.3333333333333</ele><time>2026-04-29T13:13:44.008Z</time></trkpt><trkpt lat="40.14026684623798" lon="9.505803673456251"><ele>949.6666666666666</ele><time>2026-04-29T13:13:45.008Z</time></trkpt><trkpt lat="40.140429234703916" lon="9.505815425917275"><ele>952.0</ele><time>2026-04-29T13:13:46.008Z</time></trkpt><trkpt lat="40.140595916014284" lon="9.505842506055874"><ele>954.0</ele><time>2026-04-29T13:13:47.008Z</time></trkpt><trkpt lat="40.14076114411727" lon="9.505864044995546"><ele>956.0</ele><time>2026-04-29T13:13:48.008Z</time></trkpt><trkpt lat="40.14092397191256" lon="9.50589358014496"><ele>958.0</ele><time>2026-04-29T13:13:49.008Z</time></trkpt><trkpt lat="40.14107344351179" lon="9.505916965616732"><ele>958.0</ele><time>2026-04-29T13:13:50.008Z</time></trkpt><trkpt lat="40.14121837478812" lon="9.505934711967617"><ele>958.0</ele><time>2026-04-29T13:13:51.008Z</time></trkpt><trkpt lat="40.141373221751785" lon="9.505934773458117"><ele>958.0</ele><time>2026-04-29T13:13:52.008Z</time></trkpt><trkpt lat="40.1415153376031" lon="9.50594594481737"><ele>958.0</ele><time>2026-04-29T13:13:53.008Z</time></trkpt><trkpt lat="40.14165754262464" lon="9.505938948784681"><ele>959.25</ele><time>2026-04-29T13:13:54.008Z</time></trkpt><trkpt lat="40.1417938854572" lon="9.50589578690701"><ele>960.5</ele><time>2026-04-29T13:13:55.008Z</time></trkpt><trkpt lat="40.1419470430901" lon="9.505842479413504"><ele>961.75</ele><time>2026-04-29T13:13:56.008Z</time></trkpt><trkpt lat="40.142092137309504" lon="9.505810936332137"><ele>963.0</ele><time>2026-04-29T13:13:57.008Z</time></trkpt><trkpt lat="40.142245893322155" lon="9.505783994331741"><ele>959.3333333333333</ele><time>2026-04-29T13:13:58.007Z</time></trkpt><trkpt lat="40.14239215142992" lon="9.505758295415598"><ele>955.6666666666666</ele><time>2026-04-29T13:13:59.007Z</time></trkpt><trkpt lat="40.14254173098167" lon="9.505731909989033"><ele>952.0</ele><time>2026-04-29T13:14:00.008Z</time></trkpt><trkpt lat="40.14269918584994" lon="9.505706518458608"><ele>952.0</ele><time>2026-04-29T13:14:01.007Z</time></trkpt><trkpt lat="40.142849800686214" lon="9.505696448542507"><ele>952.0</ele><time>2026-04-29T13:14:02.007Z</time></trkpt><trkpt lat="40.14300756245882" lon="9.50569829376932"><ele>952.0</ele><time>2026-04-29T13:14:03.008Z</time></trkpt><trkpt lat="40.1431567576951" lon="9.505714539226819"><ele>955.5</ele><time>2026-04-29T13:14:04.008Z</time></trkpt><trkpt lat="40.143306764054685" lon="9.505734422110413"><ele>959.0</ele><time>2026-04-29T13:14:05.008Z</time></trkpt><trkpt lat="40.14345751250028" lon="9.505741814304438"><ele>962.5</ele><time>2026-04-29T13:14:06.008Z</time></trkpt><trkpt lat="40.14358785191139" lon="9.505748659890846"><ele>966.0</ele><time>2026-04-29T13:14:07.008Z</time></trkpt><trkpt lat="40.143736798904854" lon="9.505734320199522"><ele>966.0</ele><time>2026-04-29T13:14:08.008Z</time></trkpt><trkpt lat="40.14387497644171" lon="9.505721714708022"><ele>966.0</ele><time>2026-04-29T13:14:09.008Z</time></trkpt><trkpt lat="40.14401842851601" lon="9.505669033771925"><ele>966.0</ele><time>2026-04-29T13:14:10.008Z</time></trkpt><trkpt lat="40.14415689164521" lon="9.50567318004015"><ele>966.0</ele><time>2026-04-29T13:14:11.008Z</time></trkpt><trkpt lat="40.14429003795887" lon="9.505691363924084"><ele>966.75</ele><time>2026-04-29T13:14:12.008Z</time></trkpt><trkpt lat="40.1444192791684" lon="9.50572522622882"><ele>967.5</ele><time>2026-04-29T13:14:13.008Z</time></trkpt><trkpt lat="40.144541258495465" lon="9.505780307684084"><ele>968.25</ele><time>2026-04-29T13:14:14.008Z</time></trkpt><trkpt lat="40.14465484677168" lon="9.505841402477694"><ele>969.0</ele><time>2026-04-29T13:14:15.008Z</time></trkpt><trkpt lat="40.144776701548935" lon="9.50591701543724"><ele>974.0</ele><time>2026-04-29T13:14:16.008Z</time></trkpt><trkpt lat="40.14489721032066" lon="9.505994687919252"><ele>979.0</ele><time>2026-04-29T13:14:17.008Z</time></trkpt><trkpt lat="40.14501175224289" lon="9.506069055625462"><ele>984.0</ele><time>2026-04-29T13:14:18.008Z</time></trkpt><trkpt lat="40.14513860838463" lon="9.506124363052292"><ele>989.0</ele><time>2026-04-29T13:14:19.008Z</time></trkpt><trkpt lat="40.145259844767956" lon="9.506164862503033"><ele>989.0</ele><time>2026-04-29T13:14:20.008Z</time></trkpt><trkpt lat="40.14538480182978" lon="9.506187663329436"><ele>989.0</ele><time>2026-04-29T13:14:21.008Z</time></trkpt><trkpt lat="40.14552134721868" lon="9.50619064866263"><ele>989.0</ele><time>2026-04-29T13:14:22.008Z</time></trkpt><trkpt lat="40.145659318555175" lon="9.506199414750148"><ele>989.0</ele><time>2026-04-29T13:14:23.008Z</time></trkpt><trkpt lat="40.14578484307321" lon="9.506199995991423"><ele>992.0</ele><time>2026-04-29T13:14:24.008Z</time></trkpt><trkpt lat="40.14592487596701" lon="9.506193447389858"><ele>995.0</ele><time>2026-04-29T13:14:25.008Z</time></trkpt><trkpt lat="40.146076500893365" lon="9.506186733285615"><ele>998.0</ele><time>2026-04-29T13:14:26.008Z</time></trkpt><trkpt lat="40.14622375005412" lon="9.50618199841508"><ele>1001.0</ele><time>2026-04-29T13:14:27.008Z</time></trkpt><trkpt lat="40.1463712513273" lon="9.506184128726552"><ele>1001.0</ele><time>2026-04-29T13:14:28.008Z</time></trkpt><trkpt lat="40.14651621133149" lon="9.506184155162519"><ele>1001.0</ele><time>2026-04-29T13:14:29.008Z</time></trkpt><trkpt lat="40.14666186123228" lon="9.5061905437058"><ele>1001.0</ele><time>2026-04-29T13:14:30.008Z</time></trkpt><trkpt lat="40.14680657401707" lon="9.506202744389624"><ele>1001.0</ele><time>2026-04-29T13:14:31.008Z</time></trkpt><trkpt lat="40.14694867572902" lon="9.506222346130455"><ele>996.25</ele><time>2026-04-29T13:14:32.008Z</time></trkpt><trkpt lat="40.14709227077683" lon="9.506260830329342"><ele>991.5</ele><time>2026-04-29T13:14:33.008Z</time></trkpt><trkpt lat="40.14723815535249" lon="9.506291123235883"><ele>986.75</ele><time>2026-04-29T13:14:34.008Z</time></trkpt><trkpt lat="40.147378044291" lon="9.506335565897693"><ele>982.0</ele><time>2026-04-29T13:14:35.008Z</time></trkpt><trkpt lat="40.147506846583255" lon="9.506406551740177"><ele>982.0</ele><time>2026-04-29T13:14:36.008Z</time></trkpt><trkpt lat="40.147664035698554" lon="9.50645675555568"><ele>982.0</ele><time>2026-04-29T13:14:37.008Z</time></trkpt><trkpt lat="40.1478078028248" lon="9.506512455274642"><ele>982.0</ele><time>2026-04-29T13:14:38.008Z</time></trkpt><trkpt lat="40.1479566325299" lon="9.506555184109596"><ele>982.0</ele><time>2026-04-29T13:14:39.008Z</time></trkpt><trkpt lat="40.14810970358079" lon="9.506594534606608"><ele>982.0</ele><time>2026-04-29T13:14:40.008Z</time></trkpt><trkpt lat="40.148264638101665" lon="9.506632956709211"><ele>982.0</ele><time>2026-04-29T13:14:41.008Z</time></trkpt><trkpt lat="40.14841623267346" lon="9.506674311490478"><ele>987.0</ele><time>2026-04-29T13:14:42.008Z</time></trkpt><trkpt lat="40.148580556408355" lon="9.506707524374749"><ele>992.0</ele><time>2026-04-29T13:14:43.008Z</time></trkpt><trkpt lat="40.14873179454871" lon="9.506744929120158"><ele>997.0</ele><time>2026-04-29T13:14:44.008Z</time></trkpt><trkpt lat="40.14888857367455" lon="9.506770874732043"><ele>1002.3333333333333</ele><time>2026-04-29T13:14:45.008Z</time></trkpt><trkpt lat="40.14904900555764" lon="9.506794980609532"><ele>1007.6666666666667</ele><time>2026-04-29T13:14:46.008Z</time></trkpt><trkpt lat="40.14921197144932" lon="9.506812901803546"><ele>1013.0</ele><time>2026-04-29T13:14:47.008Z</time></trkpt><trkpt lat="40.1493749835763" lon="9.506834384173274"><ele>1013.0</ele><time>2026-04-29T13:14:48.008Z</time></trkpt><trkpt lat="40.149524589874005" lon="9.506860473501293"><ele>1013.0</ele><time>2026-04-29T13:14:49.008Z</time></trkpt><trkpt lat="40.14967971101306" lon="9.506896363169583"><ele>1013.0</ele><time>2026-04-29T13:14:50.008Z</time></trkpt><trkpt lat="40.14983218030905" lon="9.506951870740968"><ele>1017.6666666666667</ele><time>2026-04-29T13:14:51.008Z</time></trkpt><trkpt lat="40.14998807299232" lon="9.50702213794374"><ele>1022.3333333333333</ele><time>2026-04-29T13:14:52.008Z</time></trkpt><trkpt lat="40.15013767031904" lon="9.507099053015395"><ele>1027.0</ele><time>2026-04-29T13:14:53.008Z</time></trkpt><trkpt lat="40.15028435610163" lon="9.507181113409159"><ele>1020.0</ele><time>2026-04-29T13:14:54.008Z</time></trkpt><trkpt lat="40.150437474539515" lon="9.50725344487198"><ele>1013.0</ele><time>2026-04-29T13:14:55.008Z</time></trkpt><trkpt lat="40.15058223848459" lon="9.5073201650115"><ele>1006.0</ele><time>2026-04-29T13:14:56.008Z</time></trkpt><trkpt lat="40.150728753945664" lon="9.50737509035183"><ele>1006.0</ele><time>2026-04-29T13:14:57.008Z</time></trkpt><trkpt lat="40.150878848686034" lon="9.507416697385377"><ele>1006.0</ele><time>2026-04-29T13:14:58.008Z</time></trkpt><trkpt lat="40.15102685601625" lon="9.50744095807052"><ele>1006.0</ele><time>2026-04-29T13:14:59.008Z</time></trkpt><trkpt lat="40.15118070239187" lon="9.507455624123704"><ele>1006.0</ele><time>2026-04-29T13:15:00.008Z</time></trkpt><trkpt lat="40.15132899830307" lon="9.507458013040617"><ele>1006.0</ele><time>2026-04-29T13:15:01.008Z</time></trkpt><trkpt lat="40.151478198217404" lon="9.507459411623634"><ele>1006.0</ele><time>2026-04-29T13:15:02.008Z</time></trkpt><trkpt lat="40.15163166256426" lon="9.507457616143384"><ele>1007.25</ele><time>2026-04-29T13:15:03.008Z</time></trkpt><trkpt lat="40.15177892071872" lon="9.507452406990813"><ele>1008.5</ele><time>2026-04-29T13:15:04.008Z</time></trkpt><trkpt lat="40.151925350429984" lon="9.507449605513592"><ele>1009.75</ele><time>2026-04-29T13:15:05.008Z</time></trkpt><trkpt lat="40.15207557173552" lon="9.50745345833232"><ele>1011.0</ele><time>2026-04-29T13:15:06.008Z</time></trkpt><trkpt lat="40.152227839354346" lon="9.507466405381054"><ele>1011.0</ele><time>2026-04-29T13:15:07.008Z</time></trkpt><trkpt lat="40.15236923547976" lon="9.507493562089444"><ele>1011.0</ele><time>2026-04-29T13:15:08.008Z</time></trkpt><trkpt lat="40.15251191314865" lon="9.507531518050637"><ele>1011.0</ele><time>2026-04-29T13:15:09.008Z</time></trkpt><trkpt lat="40.15265181590384" lon="9.507573784038923"><ele>1011.0</ele><time>2026-04-29T13:15:10.008Z</time></trkpt><trkpt lat="40.152788504481855" lon="9.507620951205624"><ele>1012.75</ele><time>2026-04-29T13:15:11.008Z</time></trkpt><trkpt lat="40.15292007885625" lon="9.507672489995661"><ele>1014.5</ele><time>2026-04-29T13:15:12.008Z</time></trkpt><trkpt lat="40.15304946983682" lon="9.50771418698443"><ele>1016.25</ele><time>2026-04-29T13:15:13.008Z</time></trkpt><trkpt lat="40.153175477330315" lon="9.507746371853594"><ele>1018.0</ele><time>2026-04-29T13:15:14.009Z</time></trkpt><trkpt lat="40.15330491580686" lon="9.507762372139055"><ele>1019.75</ele><time>2026-04-29T13:15:15.009Z</time></trkpt><trkpt lat="40.15343449732792" lon="9.507768714282346"><ele>1021.5</ele><time>2026-04-29T13:15:16.009Z</time></trkpt><trkpt lat="40.15356767896124" lon="9.507759061541751"><ele>1023.25</ele><time>2026-04-29T13:15:17.009Z</time></trkpt><trkpt lat="40.153703911701726" lon="9.50773663073596"><ele>1025.0</ele><time>2026-04-29T13:15:18.009Z</time></trkpt><trkpt lat="40.15384561137366" lon="9.507701208924185"><ele>1025.0</ele><time>2026-04-29T13:15:19.009Z</time></trkpt><trkpt lat="40.153985793540095" lon="9.507656266283904"><ele>1025.0</ele><time>2026-04-29T13:15:20.009Z</time></trkpt><trkpt lat="40.154129340989826" lon="9.507609001104537"><ele>1025.0</ele><time>2026-04-29T13:15:21.009Z</time></trkpt><trkpt lat="40.15427336726521" lon="9.507558240795769"><ele>1025.0</ele><time>2026-04-29T13:15:22.009Z</time></trkpt><trkpt lat="40.154412873201274" lon="9.50750691618785"><ele>1025.25</ele><time>2026-04-29T13:15:23.009Z</time></trkpt><trkpt lat="40.15456011415668" lon="9.507454887118254"><ele>1025.5</ele><time>2026-04-29T13:15:24.009Z</time></trkpt><trkpt lat="40.15469875013702" lon="9.507403441381772"><ele>1025.75</ele><time>2026-04-29T13:15:25.009Z</time></trkpt><trkpt lat="40.15484342576153" lon="9.507353050993856"><ele>1026.0</ele><time>2026-04-29T13:15:26.009Z</time></trkpt><trkpt lat="40.15498816388364" lon="9.50730600544603"><ele>1023.0</ele><time>2026-04-29T13:15:27.009Z</time></trkpt><trkpt lat="40.15512811346556" lon="9.50726746802401"><ele>1020.0</ele><time>2026-04-29T13:15:28.009Z</time></trkpt><trkpt lat="40.15527171218363" lon="9.507248817646456"><ele>1017.0</ele><time>2026-04-29T13:15:29.009Z</time></trkpt><trkpt lat="40.15541658779018" lon="9.507235389327045"><ele>1014.0</ele><time>2026-04-29T13:15:30.009Z</time></trkpt><trkpt lat="40.15556251765994" lon="9.507228783402972"><ele>1014.0</ele><time>2026-04-29T13:15:31.009Z</time></trkpt><trkpt lat="40.15570272167573" lon="9.507221080118299"><ele>1014.0</ele><time>2026-04-29T13:15:32.009Z</time></trkpt><trkpt lat="40.155841059034785" lon="9.507206604957812"><ele>1014.0</ele><time>2026-04-29T13:15:33.009Z</time></trkpt><trkpt lat="40.15597804469465" lon="9.507176469793311"><ele>1014.0</ele><time>2026-04-29T13:15:34.009Z</time></trkpt><trkpt lat="40.15611646960519" lon="9.50713886523534"><ele>1012.5</ele><time>2026-04-29T13:15:35.009Z</time></trkpt><trkpt lat="40.15625063865445" lon="9.50709193161299"><ele>1011.0</ele><time>2026-04-29T13:15:36.009Z</time></trkpt><trkpt lat="40.15638360518633" lon="9.507041284324986"><ele>1009.5</ele><time>2026-04-29T13:15:37.009Z</time></trkpt><trkpt lat="40.15651626397325" lon="9.506999257127099"><ele>1008.0</ele><time>2026-04-29T13:15:38.009Z</time></trkpt><trkpt lat="40.15665106700334" lon="9.506974488405008"><ele>1013.5</ele><time>2026-04-29T13:15:39.009Z</time></trkpt><trkpt lat="40.156783548327084" lon="9.506972564303268"><ele>1019.0</ele><time>2026-04-29T13:15:40.009Z</time></trkpt><trkpt lat="40.156918264453815" lon="9.506984629612383"><ele>1024.5</ele><time>2026-04-29T13:15:41.009Z</time></trkpt><trkpt lat="40.157050069988514" lon="9.507011605855382"><ele>1030.0</ele><time>2026-04-29T13:15:42.009Z</time></trkpt><trkpt lat="40.15718605393491" lon="9.507050296489059"><ele>1023.75</ele><time>2026-04-29T13:15:43.009Z</time></trkpt><trkpt lat="40.157324869215195" lon="9.507095071425857"><ele>1017.5</ele><time>2026-04-29T13:15:44.009Z</time></trkpt><trkpt lat="40.157462846164506" lon="9.50714746897246"><ele>1011.25</ele><time>2026-04-29T13:15:45.009Z</time></trkpt><trkpt lat="40.157594366274274" lon="9.507198224250292"><ele>1005.0</ele><time>2026-04-29T13:15:46.009Z</time></trkpt><trkpt lat="40.157720612135265" lon="9.507246247466128"><ele>1005.0</ele><time>2026-04-29T13:15:47.009Z</time></trkpt><trkpt lat="40.15783926353924" lon="9.507298957006297"><ele>1005.0</ele><time>2026-04-29T13:15:48.009Z</time></trkpt><trkpt lat="40.157942671849575" lon="9.507352440894495"><ele>1005.0</ele><time>2026-04-29T13:15:49.009Z</time></trkpt><trkpt lat="40.1580412558116" lon="9.50741694323426"><ele>1005.0</ele><time>2026-04-29T13:15:50.009Z</time></trkpt><trkpt lat="40.15813397025471" lon="9.507485717639069"><ele>1005.8</ele><time>2026-04-29T13:15:51.009Z</time></trkpt><trkpt lat="40.15822071522796" lon="9.507568430952185"><ele>1006.6</ele><time>2026-04-29T13:15:52.009Z</time></trkpt><trkpt lat="40.15830801557162" lon="9.507660015041091"><ele>1007.4000000000001</ele><time>2026-04-29T13:15:53.009Z</time></trkpt><trkpt lat="40.15839407279704" lon="9.50774983650441"><ele>1008.2</ele><time>2026-04-29T13:15:54.009Z</time></trkpt><trkpt lat="40.15847189666015" lon="9.50782091915172"><ele>1009.0</ele><time>2026-04-29T13:15:55.009Z</time></trkpt><trkpt lat="40.15853581917519" lon="9.507879826847267"><ele>1008.5714285714287</ele><time>2026-04-29T13:15:56.009Z</time></trkpt><trkpt lat="40.15859531144456" lon="9.507936807452628"><ele>1008.1428571428571</ele><time>2026-04-29T13:15:57.009Z</time></trkpt><trkpt lat="40.15865252319128" lon="9.507992182003367"><ele>1007.7142857142858</ele><time>2026-04-29T13:15:58.009Z</time></trkpt><trkpt lat="40.1587097648008" lon="9.508048544167659"><ele>1007.2857142857143</ele><time>2026-04-29T13:15:59.009Z</time></trkpt><trkpt lat="40.15876668776397" lon="9.508107250972053"><ele>1006.8571428571429</ele><time>2026-04-29T13:16:00.009Z</time></trkpt><trkpt lat="40.158822209570424" lon="9.508160886727921"><ele>1006.4285714285714</ele><time>2026-04-29T13:16:01.009Z</time></trkpt><trkpt lat="40.15887588833169" lon="9.508218931560357"><ele>1006.0</ele><time>2026-04-29T13:16:02.009Z</time></trkpt><trkpt lat="40.15892596021799" lon="9.50827784789052"><ele>1006.0</ele><time>2026-04-29T13:16:03.008Z</time></trkpt><trkpt lat="40.15897313746931" lon="9.508334102533407"><ele>1005.9999999999999</ele><time>2026-04-29T13:16:04.008Z</time></trkpt><trkpt lat="40.159058452868926" lon="9.508424646767676"><ele>1005.9999999999999</ele><time>2026-04-29T13:16:06.008Z</time></trkpt><trkpt lat="40.15914872806551" lon="9.508512699600612"><ele>1006.0</ele><time>2026-04-29T13:17:52.009Z</time></trkpt><trkpt lat="40.159255784333325" lon="9.508579735162954"><ele>1006.0</ele><time>2026-04-29T13:17:55.01Z</time></trkpt><trkpt lat="40.15932523594107" lon="9.508597963860685"><ele>1005.6666666666666</ele><time>2026-04-29T13:17:56.01Z</time></trkpt><trkpt lat="40.15939747879484" lon="9.50861908261056"><ele>1005.3333333333333</ele><time>2026-04-29T13:17:57.01Z</time></trkpt><trkpt lat="40.159472547230344" lon="9.508637881950676"><ele>1005.0</ele><time>2026-04-29T13:17:58.01Z</time></trkpt><trkpt lat="40.1595614449981" lon="9.508659935702246"><ele>1004.6666666666667</ele><time>2026-04-29T13:17:59.01Z</time></trkpt><trkpt lat="40.1596553251035" lon="9.508686612608317"><ele>1004.3333333333334</ele><time>2026-04-29T13:18:00.01Z</time></trkpt><trkpt lat="40.159756955925765" lon="9.508712611979249"><ele>1004.0</ele><time>2026-04-29T13:18:01.01Z</time></trkpt><trkpt lat="40.15985781553447" lon="9.508743774859811"><ele>1005.0</ele><time>2026-04-29T13:18:02.01Z</time></trkpt><trkpt lat="40.159956088713706" lon="9.508784131808696"><ele>1006.0000000000001</ele><time>2026-04-29T13:18:03.01Z</time></trkpt><trkpt lat="40.16005421702902" lon="9.508838479269823"><ele>1007.0000000000001</ele><time>2026-04-29T13:18:04.01Z</time></trkpt><trkpt lat="40.160143934850545" lon="9.508908617598541"><ele>1008.0</ele><time>2026-04-29T13:18:05.01Z</time></trkpt><trkpt lat="40.1602277182924" lon="9.509001008056263"><ele>1009.0</ele><time>2026-04-29T13:18:06.01Z</time></trkpt><trkpt lat="40.160310739936754" lon="9.509101395740096"><ele>1009.0</ele><time>2026-04-29T13:18:07.01Z</time></trkpt><trkpt lat="40.16039304309734" lon="9.509192171774101"><ele>1009.0000000000001</ele><time>2026-04-29T13:18:08.01Z</time></trkpt><trkpt lat="40.16048262618507" lon="9.509265253634693"><ele>1009.0000000000001</ele><time>2026-04-29T13:18:09.009Z</time></trkpt><trkpt lat="40.16058215119804" lon="9.509327473544863"><ele>1009.0</ele><time>2026-04-29T13:18:10.009Z</time></trkpt><trkpt lat="40.16068722469931" lon="9.509374327986691"><ele>1009.0</ele><time>2026-04-29T13:18:11.009Z</time></trkpt><trkpt lat="40.16078911833354" lon="9.509434714951265"><ele>1005.0</ele><time>2026-04-29T13:18:12.009Z</time></trkpt><trkpt lat="40.16090230349035" lon="9.509465142523064"><ele>1001.0000000000001</ele><time>2026-04-29T13:18:13.009Z</time></trkpt><trkpt lat="40.16101036008743" lon="9.509457928408585"><ele>997.0000000000001</ele><time>2026-04-29T13:18:14.01Z</time></trkpt><trkpt lat="40.16111087296417" lon="9.509483037674277"><ele>993.0</ele><time>2026-04-29T13:18:15.009Z</time></trkpt><trkpt lat="40.16120878281046" lon="9.509505878477144"><ele>989.0</ele><time>2026-04-29T13:18:16.009Z</time></trkpt><trkpt lat="40.16129999174985" lon="9.50953428241918"><ele>988.6</ele><time>2026-04-29T13:18:17.009Z</time></trkpt><trkpt lat="40.16138292969752" lon="9.509595314893204"><ele>988.2</ele><time>2026-04-29T13:18:18.009Z</time></trkpt><trkpt lat="40.161456454844696" lon="9.509675258213974"><ele>987.8000000000001</ele><time>2026-04-29T13:18:19.009Z</time></trkpt><trkpt lat="40.16151944065919" lon="9.509780143978656"><ele>987.4000000000001</ele><time>2026-04-29T13:18:20.009Z</time></trkpt><trkpt lat="40.161578593516616" lon="9.509899135284098"><ele>987.0</ele><time>2026-04-29T13:18:21.009Z</time></trkpt><trkpt lat="40.161631532218806" lon="9.510033054507018"><ele>987.0</ele><time>2026-04-29T13:18:22.009Z</time></trkpt><trkpt lat="40.161686042786705" lon="9.510183778141695"><ele>987.0</ele><time>2026-04-29T13:18:23.009Z</time></trkpt><trkpt lat="40.16172879428849" lon="9.510336554653865"><ele>987.0</ele><time>2026-04-29T13:18:24.009Z</time></trkpt><trkpt lat="40.16176456748147" lon="9.51048077322093"><ele>987.0</ele><time>2026-04-29T13:18:25.009Z</time></trkpt><trkpt lat="40.161793856145515" lon="9.510620842942652"><ele>987.4000000000001</ele><time>2026-04-29T13:18:26.009Z</time></trkpt><trkpt lat="40.161828905603606" lon="9.51076770523029"><ele>987.8000000000001</ele><time>2026-04-29T13:18:27.009Z</time></trkpt><trkpt lat="40.16186291920331" lon="9.510913064793536"><ele>988.2</ele><time>2026-04-29T13:18:28.009Z</time></trkpt><trkpt lat="40.16189659146398" lon="9.511042885023992"><ele>988.6</ele><time>2026-04-29T13:18:29.009Z</time></trkpt><trkpt lat="40.161926937256624" lon="9.511150322307858"><ele>989.0</ele><time>2026-04-29T13:18:30.009Z</time></trkpt><trkpt lat="40.161956438336425" lon="9.511249438571781"><ele>986.5</ele><time>2026-04-29T13:18:31.009Z</time></trkpt><trkpt lat="40.16196865392398" lon="9.511367130416176"><ele>984.0</ele><time>2026-04-29T13:18:32.009Z</time></trkpt><trkpt lat="40.16199575171128" lon="9.511474907045386"><ele>981.5</ele><time>2026-04-29T13:18:33.009Z</time></trkpt><trkpt lat="40.16204282195098" lon="9.511722296345276"><ele>979.0</ele><time>2026-04-29T13:18:34.009Z</time></trkpt><trkpt lat="40.16207241707826" lon="9.51187776104372"><ele>979.0</ele><time>2026-04-29T13:18:35.009Z</time></trkpt><trkpt lat="40.16208688476814" lon="9.51201757565941"><ele>979.0000000000001</ele><time>2026-04-29T13:18:36.009Z</time></trkpt><trkpt lat="40.16208232221462" lon="9.512159071368007"><ele>979.0000000000001</ele><time>2026-04-29T13:18:37.009Z</time></trkpt><trkpt lat="40.16205351944534" lon="9.51230881867415"><ele>979.0</ele><time>2026-04-29T13:18:38.009Z</time></trkpt><trkpt lat="40.162009206624056" lon="9.51244770969015"><ele>979.0</ele><time>2026-04-29T13:18:39.009Z</time></trkpt><trkpt lat="40.1619484273126" lon="9.51255940386563"><ele>978.0</ele><time>2026-04-29T13:18:40.009Z</time></trkpt><trkpt lat="40.16187351903478" lon="9.512663120443232"><ele>977.0</ele><time>2026-04-29T13:18:41.009Z</time></trkpt><trkpt lat="40.16179334630242" lon="9.512777651090717"><ele>976.0</ele><time>2026-04-29T13:18:42.009Z</time></trkpt><trkpt lat="40.16172086291571" lon="9.51289821606275"><ele>975.0</ele><time>2026-04-29T13:18:43.009Z</time></trkpt><trkpt lat="40.16164782250157" lon="9.51301334553841"><ele>977.75</ele><time>2026-04-29T13:18:44.009Z</time></trkpt><trkpt lat="40.16157382574314" lon="9.513131617752839"><ele>980.5</ele><time>2026-04-29T13:18:45.009Z</time></trkpt><trkpt lat="40.16148898392705" lon="9.513251333474946"><ele>983.25</ele><time>2026-04-29T13:18:46.009Z</time></trkpt><trkpt lat="40.161408430836254" lon="9.513356846160002"><ele>986.0</ele><time>2026-04-29T13:18:47.009Z</time></trkpt><trkpt lat="40.161341053107286" lon="9.51344746057463"><ele>982.1666666666667</ele><time>2026-04-29T13:18:48.009Z</time></trkpt><trkpt lat="40.1612897290064" lon="9.513512924214279"><ele>978.3333333333334</ele><time>2026-04-29T13:18:49.009Z</time></trkpt><trkpt lat="40.16121716929302" lon="9.513566664618137"><ele>974.5</ele><time>2026-04-29T13:18:51.009Z</time></trkpt><trkpt lat="40.16116836864892" lon="9.513628206632543"><ele>970.6666666666667</ele><time>2026-04-29T13:18:55.009Z</time></trkpt><trkpt lat="40.16123358267227" lon="9.513647582103744"><ele>966.8333333333334</ele><time>2026-04-29T13:19:13.01Z</time></trkpt><trkpt lat="40.16128353507376" lon="9.513586475957556"><ele>963.0</ele><time>2026-04-29T13:19:15.01Z</time></trkpt><trkpt lat="40.16135675482311" lon="9.51347632483079"><ele>963.0</ele><time>2026-04-29T13:19:17.01Z</time></trkpt><trkpt lat="40.16147385264256" lon="9.513310146794975"><ele>963.0</ele><time>2026-04-29T13:19:19.01Z</time></trkpt><trkpt lat="40.1615482898862" lon="9.513254980195743"><ele>963.0</ele><time>2026-04-29T13:19:20.01Z</time></trkpt><trkpt lat="40.1616034998627" lon="9.513171237866409"><ele>963.0</ele><time>2026-04-29T13:19:21.01Z</time></trkpt><trkpt lat="40.16166041330769" lon="9.513092110123686"><ele>963.0</ele><time>2026-04-29T13:19:22.01Z</time></trkpt><trkpt lat="40.161719325971866" lon="9.513001991827714"><ele>965.4</ele><time>2026-04-29T13:19:23.01Z</time></trkpt><trkpt lat="40.16178249397357" lon="9.512910109646187"><ele>967.8</ele><time>2026-04-29T13:19:24.01Z</time></trkpt><trkpt lat="40.16184705023968" lon="9.512818716936776"><ele>970.2</ele><time>2026-04-29T13:19:25.01Z</time></trkpt><trkpt lat="40.16191311537921" lon="9.512728195134871"><ele>972.6</ele><time>2026-04-29T13:19:26.01Z</time></trkpt><trkpt lat="40.161972428739524" lon="9.512646037707173"><ele>975.0</ele><time>2026-04-29T13:19:27.01Z</time></trkpt><trkpt lat="40.16202231914048" lon="9.51256692352222"><ele>975.0</ele><time>2026-04-29T13:19:28.01Z</time></trkpt><trkpt lat="40.16206172334336" lon="9.512495979514707"><ele>974.9999999999999</ele><time>2026-04-29T13:19:29.01Z</time></trkpt><trkpt lat="40.162090666352135" lon="9.512412808017796"><ele>975.0</ele><time>2026-04-29T13:19:30.01Z</time></trkpt><trkpt lat="40.162113462956896" lon="9.512331508457972"><ele>975.0</ele><time>2026-04-29T13:19:31.01Z</time></trkpt><trkpt lat="40.16213946450491" lon="9.512209440817209"><ele>974.9999999999999</ele><time>2026-04-29T13:19:33.01Z</time></trkpt><trkpt lat="40.16219241289812" lon="9.51216192210047"><ele>975.0</ele><time>2026-04-29T13:19:36.01Z</time></trkpt><trkpt lat="40.16222269184031" lon="9.512250700765497"><ele>975.0</ele><time>2026-04-29T13:20:48.009Z</time></trkpt><trkpt lat="40.16243672082377" lon="9.51236446442261"><ele>977.8</ele><time>2026-04-29T13:22:07.01Z</time></trkpt><trkpt lat="40.162517645583435" lon="9.512423879934826"><ele>980.6</ele><time>2026-04-29T13:22:09.01Z</time></trkpt><trkpt lat="40.162615375762776" lon="9.512477941797883"><ele>983.4000000000001</ele><time>2026-04-29T13:22:11.01Z</time></trkpt><trkpt lat="40.162722856952946" lon="9.51250710904327"><ele>986.2</ele><time>2026-04-29T13:22:13.01Z</time></trkpt><trkpt lat="40.162843155090805" lon="9.512503219577813"><ele>989.0</ele><time>2026-04-29T13:22:15.01Z</time></trkpt><trkpt lat="40.16290835730461" lon="9.512503382716968"><ele>989.0000000000001</ele><time>2026-04-29T13:22:16.01Z</time></trkpt><trkpt lat="40.162981452877546" lon="9.512504753263018"><ele>989.0</ele><time>2026-04-29T13:22:17.01Z</time></trkpt><trkpt lat="40.16304435407571" lon="9.51251884099986"><ele>989.0</ele><time>2026-04-29T13:22:18.01Z</time></trkpt><trkpt lat="40.16314737903327" lon="9.512548424713426"><ele>989.0</ele><time>2026-04-29T13:22:20.01Z</time></trkpt><trkpt lat="40.16321729064575" lon="9.512587606046813"><ele>989.0000000000001</ele><time>2026-04-29T13:22:22.01Z</time></trkpt><trkpt lat="40.163264211725725" lon="9.512666747216116"><ele>989.0</ele><time>2026-04-29T13:22:24.01Z</time></trkpt><trkpt lat="40.16332312405104" lon="9.512797022317336"><ele>988.3333333333334</ele><time>2026-04-29T13:22:26.01Z</time></trkpt><trkpt lat="40.16339939984057" lon="9.512886246658509"><ele>987.6666666666667</ele><time>2026-04-29T13:22:28.01Z</time></trkpt><trkpt lat="40.16350787979882" lon="9.512948930571596"><ele>987.0</ele><time>2026-04-29T13:22:30.011Z</time></trkpt><trkpt lat="40.16355726697707" lon="9.513001896972938"><ele>986.3333333333333</ele><time>2026-04-29T13:22:31.011Z</time></trkpt><trkpt lat="40.16360302744997" lon="9.513063191021388"><ele>985.6666666666666</ele><time>2026-04-29T13:22:32.01Z</time></trkpt><trkpt lat="40.163645097774285" lon="9.513126071877702"><ele>985.0</ele><time>2026-04-29T13:22:33.01Z</time></trkpt><trkpt lat="40.16368161540899" lon="9.513196210240979"><ele>986.8571428571429</ele><time>2026-04-29T13:22:34.01Z</time></trkpt><trkpt lat="40.163720167344835" lon="9.513269210074812"><ele>988.7142857142858</ele><time>2026-04-29T13:22:35.01Z</time></trkpt><trkpt lat="40.163763224822475" lon="9.513335264174662"><ele>990.5714285714287</ele><time>2026-04-29T13:22:36.01Z</time></trkpt><trkpt lat="40.163815286716904" lon="9.513392768544458"><ele>992.4285714285716</ele><time>2026-04-29T13:22:37.01Z</time></trkpt><trkpt lat="40.16386673371469" lon="9.513446667689841"><ele>994.2857142857143</ele><time>2026-04-29T13:22:38.01Z</time></trkpt><trkpt lat="40.16392878568773" lon="9.513507566034352"><ele>996.1428571428573</ele><time>2026-04-29T13:22:39.01Z</time></trkpt><trkpt lat="40.163993962611784" lon="9.513556810640328"><ele>998.0000000000001</ele><time>2026-04-29T13:22:40.01Z</time></trkpt><trkpt lat="40.16406144952195" lon="9.513613082904346"><ele>998.0000000000001</ele><time>2026-04-29T13:22:41.01Z</time></trkpt><trkpt lat="40.16412527883593" lon="9.513669035950594"><ele>998.0</ele><time>2026-04-29T13:22:42.01Z</time></trkpt><trkpt lat="40.16419573453166" lon="9.513729608143546"><ele>998.0</ele><time>2026-04-29T13:22:43.01Z</time></trkpt><trkpt lat="40.16426099033653" lon="9.513796724577409"><ele>998.0</ele><time>2026-04-29T13:22:44.01Z</time></trkpt><trkpt lat="40.16432181946117" lon="9.513872602442223"><ele>998.0000000000001</ele><time>2026-04-29T13:22:45.01Z</time></trkpt><trkpt lat="40.16438380123766" lon="9.513958382490012"><ele>998.0</ele><time>2026-04-29T13:22:46.01Z</time></trkpt><trkpt lat="40.16444732895732" lon="9.514035718692833"><ele>1001.8333333333334</ele><time>2026-04-29T13:22:47.01Z</time></trkpt><trkpt lat="40.16451038101507" lon="9.514108380571884"><ele>1005.6666666666667</ele><time>2026-04-29T13:22:48.01Z</time></trkpt><trkpt lat="40.16458016293137" lon="9.514175351781342"><ele>1009.5</ele><time>2026-04-29T13:22:49.01Z</time></trkpt><trkpt lat="40.16463970827299" lon="9.514245866193578"><ele>1013.3333333333333</ele><time>2026-04-29T13:22:50.01Z</time></trkpt><trkpt lat="40.16469360690368" lon="9.514320767118992"><ele>1017.1666666666666</ele><time>2026-04-29T13:22:51.01Z</time></trkpt><trkpt lat="40.16474465942355" lon="9.514405624089072"><ele>1021.0</ele><time>2026-04-29T13:22:52.01Z</time></trkpt><trkpt lat="40.16479788061204" lon="9.514490904721733"><ele>1020.4</ele><time>2026-04-29T13:22:53.01Z</time></trkpt><trkpt lat="40.16484390508743" lon="9.514576545270321"><ele>1019.8</ele><time>2026-04-29T13:22:54.01Z</time></trkpt><trkpt lat="40.16490390408782" lon="9.514704005269069"><ele>1019.1999999999999</ele><time>2026-04-29T13:22:56.01Z</time></trkpt><trkpt lat="40.16492952296594" lon="9.514853281181459"><ele>1018.5999999999999</ele><time>2026-04-29T13:22:58.01Z</time></trkpt><trkpt lat="40.164942907092694" lon="9.514951358564124"><ele>1018.0</ele><time>2026-04-29T13:22:59.01Z</time></trkpt><trkpt lat="40.1649577655538" lon="9.515044165822525"><ele>1017.9999999999999</ele><time>2026-04-29T13:23:00.01Z</time></trkpt><trkpt lat="40.16497237949228" lon="9.515138486166585"><ele>1018.0</ele><time>2026-04-29T13:23:01.01Z</time></trkpt><trkpt lat="40.164982215198876" lon="9.515234636734384"><ele>1018.0</ele><time>2026-04-29T13:23:02.01Z</time></trkpt><trkpt lat="40.16498143236622" lon="9.515335882125198"><ele>1018.0</ele><time>2026-04-29T13:23:03.01Z</time></trkpt><trkpt lat="40.16497426192385" lon="9.515440837582258"><ele>1017.9999999999999</ele><time>2026-04-29T13:23:04.01Z</time></trkpt><trkpt lat="40.16496376516737" lon="9.515544240380585"><ele>1018.0</ele><time>2026-04-29T13:23:05.01Z</time></trkpt><trkpt lat="40.16495526781272" lon="9.51564160899176"><ele>1017.8333333333333</ele><time>2026-04-29T13:23:06.01Z</time></trkpt><trkpt lat="40.16494137159046" lon="9.51572274294421"><ele>1017.6666666666666</ele><time>2026-04-29T13:23:07.01Z</time></trkpt><trkpt lat="40.16492300383371" lon="9.515887511390105"><ele>1017.5</ele><time>2026-04-29T13:23:09.01Z</time></trkpt><trkpt lat="40.16490284273927" lon="9.515973269655198"><ele>1017.3333333333333</ele><time>2026-04-29T13:23:10.01Z</time></trkpt><trkpt lat="40.1648767759539" lon="9.51607062423187"><ele>1017.1666666666666</ele><time>2026-04-29T13:23:11.01Z</time></trkpt><trkpt lat="40.164838799686855" lon="9.516150950491149"><ele>1017.0</ele><time>2026-04-29T13:23:12.01Z</time></trkpt><trkpt lat="40.16478266670927" lon="9.516233431589788"><ele>1020.2</ele><time>2026-04-29T13:23:13.01Z</time></trkpt><trkpt lat="40.164742901478796" lon="9.516321337545778"><ele>1023.4000000000001</ele><time>2026-04-29T13:23:14.01Z</time></trkpt><trkpt lat="40.16470270367829" lon="9.51641878101325"><ele>1026.6</ele><time>2026-04-29T13:23:15.01Z</time></trkpt><trkpt lat="40.1646723027792" lon="9.516527577658916"><ele>1029.8</ele><time>2026-04-29T13:23:16.01Z</time></trkpt><trkpt lat="40.164645918529985" lon="9.516645193969444"><ele>1033.0</ele><time>2026-04-29T13:23:17.01Z</time></trkpt><trkpt lat="40.164626390439395" lon="9.516786053560782"><ele>1033.0</ele><time>2026-04-29T13:23:18.01Z</time></trkpt><trkpt lat="40.16461504900916" lon="9.51691918876888"><ele>1033.0</ele><time>2026-04-29T13:23:19.01Z</time></trkpt><trkpt lat="40.164610021943844" lon="9.517024046419456"><ele>1033.0</ele><time>2026-04-29T13:23:20.01Z</time></trkpt><trkpt lat="40.16461798663932" lon="9.517134128974075"><ele>1033.0</ele><time>2026-04-29T13:23:21.01Z</time></trkpt><trkpt lat="40.16462609566942" lon="9.517239726951699"><ele>1033.0</ele><time>2026-04-29T13:23:22.01Z</time></trkpt><trkpt lat="40.16463499484015" lon="9.517353780096965"><ele>1033.0</ele><time>2026-04-29T13:23:23.01Z</time></trkpt><trkpt lat="40.164657908485005" lon="9.517450450928985"><ele>1031.6666666666665</ele><time>2026-04-29T13:23:24.01Z</time></trkpt><trkpt lat="40.16468400157806" lon="9.517537024186177"><ele>1030.3333333333333</ele><time>2026-04-29T13:23:25.01Z</time></trkpt><trkpt lat="40.164721979415944" lon="9.51762018951045"><ele>1029.0</ele><time>2026-04-29T13:23:26.01Z</time></trkpt><trkpt lat="40.16475193050856" lon="9.517706450175101"><ele>1027.6666666666667</ele><time>2026-04-29T13:23:27.01Z</time></trkpt><trkpt lat="40.164798005536895" lon="9.517796417059824"><ele>1026.3333333333335</ele><time>2026-04-29T13:23:28.01Z</time></trkpt><trkpt lat="40.16485394526187" lon="9.517889788298062"><ele>1025.0</ele><time>2026-04-29T13:23:29.01Z</time></trkpt><trkpt lat="40.16490698304594" lon="9.517986452852954"><ele>1023.5000000000001</ele><time>2026-04-29T13:23:30.01Z</time></trkpt><trkpt lat="40.164944710111605" lon="9.518085123881862"><ele>1022.0</ele><time>2026-04-29T13:23:31.01Z</time></trkpt><trkpt lat="40.16497965469133" lon="9.518171730787953"><ele>1020.5</ele><time>2026-04-29T13:23:32.01Z</time></trkpt><trkpt lat="40.1650066033067" lon="9.518260505995132"><ele>1019.0</ele><time>2026-04-29T13:23:33.01Z</time></trkpt><trkpt lat="40.16503999079069" lon="9.518359648566525"><ele>1017.5000000000001</ele><time>2026-04-29T13:23:34.01Z</time></trkpt><trkpt lat="40.16507720451999" lon="9.51848472077735"><ele>1016.0</ele><time>2026-04-29T13:23:35.01Z</time></trkpt><trkpt lat="40.16511709391872" lon="9.518613950826891"><ele>1016.0</ele><time>2026-04-29T13:23:36.01Z</time></trkpt><trkpt lat="40.165173745640125" lon="9.518738498068837"><ele>1015.9999999999999</ele><time>2026-04-29T13:23:37.01Z</time></trkpt><trkpt lat="40.165227767262785" lon="9.51884532648978"><ele>1015.9999999999999</ele><time>2026-04-29T13:23:38.01Z</time></trkpt><trkpt lat="40.165265115080544" lon="9.518944237782227"><ele>1016.0</ele><time>2026-04-29T13:23:39.01Z</time></trkpt><trkpt lat="40.16528851884877" lon="9.519034544410173"><ele>1016.0</ele><time>2026-04-29T13:23:40.01Z</time></trkpt><trkpt lat="40.16532065733863" lon="9.519151580255022"><ele>1016.0</ele><time>2026-04-29T13:23:42.01Z</time></trkpt><trkpt lat="40.165347345178276" lon="9.519236721781592"><ele>1015.9999999999999</ele><time>2026-04-29T13:23:44.01Z</time></trkpt><trkpt lat="40.165382576313654" lon="9.519355496683831"><ele>1015.9999999999999</ele><time>2026-04-29T13:23:46.01Z</time></trkpt><trkpt lat="40.16540755236879" lon="9.519490380907515"><ele>1016.0</ele><time>2026-04-29T13:23:48.011Z</time></trkpt><trkpt lat="40.165425834841884" lon="9.519649206086783"><ele>1016.0</ele><time>2026-04-29T13:23:50.011Z</time></trkpt><trkpt lat="40.16544645409672" lon="9.519735533433023"><ele>1016.7142857142858</ele><time>2026-04-29T13:23:51.011Z</time></trkpt><trkpt lat="40.16547142194544" lon="9.519820018059349"><ele>1017.4285714285713</ele><time>2026-04-29T13:23:52.011Z</time></trkpt><trkpt lat="40.16550381617656" lon="9.519900695810525"><ele>1018.1428571428571</ele><time>2026-04-29T13:23:53.011Z</time></trkpt><trkpt lat="40.16554720974319" lon="9.519972879380585"><ele>1018.8571428571429</ele><time>2026-04-29T13:23:54.011Z</time></trkpt><trkpt lat="40.165600596978976" lon="9.520048268211134"><ele>1019.5714285714287</ele><time>2026-04-29T13:23:55.011Z</time></trkpt><trkpt lat="40.165651314362755" lon="9.520131982907113"><ele>1020.2857142857142</ele><time>2026-04-29T13:23:56.011Z</time></trkpt><trkpt lat="40.16569711001938" lon="9.520216358458834"><ele>1021.0</ele><time>2026-04-29T13:23:57.011Z</time></trkpt><trkpt lat="40.16574357628156" lon="9.520288828006468"><ele>1021.1666666666666</ele><time>2026-04-29T13:23:58.011Z</time></trkpt><trkpt lat="40.16579570294025" lon="9.52036102980693"><ele>1021.3333333333333</ele><time>2026-04-29T13:23:59.011Z</time></trkpt><trkpt lat="40.16586523073685" lon="9.520435318498047"><ele>1021.5</ele><time>2026-04-29T13:24:00.011Z</time></trkpt><trkpt lat="40.16594689776634" lon="9.520498536710148"><ele>1021.6666666666667</ele><time>2026-04-29T13:24:01.011Z</time></trkpt><trkpt lat="40.16602985205917" lon="9.520552516110719"><ele>1021.8333333333334</ele><time>2026-04-29T13:24:02.011Z</time></trkpt><trkpt lat="40.16611356420904" lon="9.520609022622839"><ele>1022.0</ele><time>2026-04-29T13:24:03.011Z</time></trkpt><trkpt lat="40.16618491230702" lon="9.520668525961067"><ele>1022.0000000000001</ele><time>2026-04-29T13:24:04.011Z</time></trkpt><trkpt lat="40.16625303888615" lon="9.520736029292483"><ele>1022.0</ele><time>2026-04-29T13:24:05.011Z</time></trkpt><trkpt lat="40.16632191473038" lon="9.52079375753492"><ele>1022.0</ele><time>2026-04-29T13:24:06.011Z</time></trkpt><trkpt lat="40.166395397507344" lon="9.52085018374535"><ele>1022.0</ele><time>2026-04-29T13:24:07.011Z</time></trkpt><trkpt lat="40.16646854948405" lon="9.52090016240812"><ele>1022.0000000000001</ele><time>2026-04-29T13:24:08.011Z</time></trkpt><trkpt lat="40.16653364103625" lon="9.52094566331594"><ele>1022.0</ele><time>2026-04-29T13:24:09.011Z</time></trkpt><trkpt lat="40.16660088341989" lon="9.520991269520872"><ele>1021.1666666666667</ele><time>2026-04-29T13:24:10.011Z</time></trkpt><trkpt lat="40.1666628083479" lon="9.521018451062147"><ele>1020.3333333333334</ele><time>2026-04-29T13:24:11.011Z</time></trkpt><trkpt lat="40.166793230791896" lon="9.521040173342254"><ele>1019.5</ele><time>2026-04-29T13:24:13.011Z</time></trkpt><trkpt lat="40.16687027504107" lon="9.52105120015851"><ele>1018.6666666666667</ele><time>2026-04-29T13:24:14.011Z</time></trkpt><trkpt lat="40.16694666792734" lon="9.52105190165018"><ele>1017.8333333333334</ele><time>2026-04-29T13:24:15.011Z</time></trkpt><trkpt lat="40.16702414060372" lon="9.521055334786167"><ele>1017.0</ele><time>2026-04-29T13:24:16.011Z</time></trkpt><trkpt lat="40.1671036396467" lon="9.521044427857596"><ele>1017.0</ele><time>2026-04-29T13:24:17.011Z</time></trkpt><trkpt lat="40.16716965611081" lon="9.521041904230422"><ele>1017.0</ele><time>2026-04-29T13:24:18.011Z</time></trkpt><trkpt lat="40.16727888611124" lon="9.521060701309374"><ele>1017.0</ele><time>2026-04-29T13:24:20.011Z</time></trkpt><trkpt lat="40.16736897049807" lon="9.521113636841857"><ele>1017.0</ele><time>2026-04-29T13:24:22.011Z</time></trkpt><trkpt lat="40.16741139356073" lon="9.521208818297238"><ele>1017.0</ele><time>2026-04-29T13:24:24.011Z</time></trkpt><trkpt lat="40.16740242726989" lon="9.521382968246371"><ele>1014.0</ele><time>2026-04-29T13:24:26.011Z</time></trkpt><trkpt lat="40.167392266834305" lon="9.521481193221515"><ele>1011.0</ele><time>2026-04-29T13:24:27.01Z</time></trkpt><trkpt lat="40.16739259595776" lon="9.521574490042807"><ele>1008.0</ele><time>2026-04-29T13:24:28.01Z</time></trkpt><trkpt lat="40.16743273776625" lon="9.521668441707885"><ele>1005.0</ele><time>2026-04-29T13:24:30.011Z</time></trkpt><trkpt lat="40.16754427117667" lon="9.521748186378002"><ele>1002.0</ele><time>2026-04-29T13:24:32.01Z</time></trkpt><trkpt lat="40.16760910088952" lon="9.521810307727886"><ele>999.0</ele><time>2026-04-29T13:24:33.01Z</time></trkpt><trkpt lat="40.16766253832862" lon="9.52187135717019"><ele>999.0</ele><time>2026-04-29T13:24:34.01Z</time></trkpt><trkpt lat="40.16771911298107" lon="9.521922583068218"><ele>999.0000000000001</ele><time>2026-04-29T13:24:35.011Z</time></trkpt><trkpt lat="40.16781895806361" lon="9.521984717093806"><ele>999.0000000000001</ele><time>2026-04-29T13:24:37.011Z</time></trkpt><trkpt lat="40.16791222243501" lon="9.521991076929243"><ele>999.0</ele><time>2026-04-29T13:24:39.01Z</time></trkpt><trkpt lat="40.16799891645186" lon="9.521955985024848"><ele>999.0</ele><time>2026-04-29T13:24:41.01Z</time></trkpt><trkpt lat="40.16811805168411" lon="9.521900201830334"><ele>999.0</ele><time>2026-04-29T13:24:43.01Z</time></trkpt><trkpt lat="40.16818344859811" lon="9.521877616522431"><ele>999.0000000000001</ele><time>2026-04-29T13:24:44.01Z</time></trkpt><trkpt lat="40.168254686161006" lon="9.52185465808965"><ele>999.0</ele><time>2026-04-29T13:24:45.01Z</time></trkpt><trkpt lat="40.16832751187746" lon="9.521830842792188"><ele>999.0</ele><time>2026-04-29T13:24:46.01Z</time></trkpt><trkpt lat="40.16839857704931" lon="9.521802393334418"><ele>999.0000000000001</ele><time>2026-04-29T13:24:47.01Z</time></trkpt><trkpt lat="40.1684674182296" lon="9.521779292946759"><ele>999.0</ele><time>2026-04-29T13:24:48.01Z</time></trkpt><trkpt lat="40.16854036515779" lon="9.521753334997477"><ele>999.0</ele><time>2026-04-29T13:24:49.01Z</time></trkpt><trkpt lat="40.16860868972012" lon="9.521729612075337"><ele>996.6666666666666</ele><time>2026-04-29T13:24:50.01Z</time></trkpt><trkpt lat="40.16867565582313" lon="9.52171088379574"><ele>994.3333333333333</ele><time>2026-04-29T13:24:51.01Z</time></trkpt><trkpt lat="40.1687411315805" lon="9.521690464838283"><ele>992.0</ele><time>2026-04-29T13:24:52.01Z</time></trkpt><trkpt lat="40.168803726798664" lon="9.521668377421054"><ele>989.6666666666666</ele><time>2026-04-29T13:24:53.011Z</time></trkpt><trkpt lat="40.16891324627964" lon="9.521621631645885"><ele>987.3333333333333</ele><time>2026-04-29T13:24:55.011Z</time></trkpt><trkpt lat="40.16899960606514" lon="9.521583209451965"><ele>985.0</ele><time>2026-04-29T13:24:57.011Z</time></trkpt><trkpt lat="40.16906421024567" lon="9.52160457484966"><ele>980.5</ele><time>2026-04-29T13:24:59.011Z</time></trkpt><trkpt lat="40.16912472488847" lon="9.521695949229121"><ele>976.0</ele><time>2026-04-29T13:25:01.011Z</time></trkpt><trkpt lat="40.16917576889402" lon="9.52182614905469"><ele>971.5</ele><time>2026-04-29T13:25:03.011Z</time></trkpt><trkpt lat="40.169254675849096" lon="9.521944036346467"><ele>967.0</ele><time>2026-04-29T13:25:05.011Z</time></trkpt><trkpt lat="40.1693644114693" lon="9.52203527132269"><ele>966.5714285714287</ele><time>2026-04-29T13:25:07.011Z</time></trkpt><trkpt lat="40.169434417657335" lon="9.522069613436589"><ele>966.1428571428571</ele><time>2026-04-29T13:25:08.011Z</time></trkpt><trkpt lat="40.16950252295022" lon="9.522092564107583"><ele>965.7142857142858</ele><time>2026-04-29T13:25:09.011Z</time></trkpt><trkpt lat="40.169573039167254" lon="9.52211279435557"><ele>965.2857142857143</ele><time>2026-04-29T13:25:10.011Z</time></trkpt><trkpt lat="40.16963577348027" lon="9.52212703109861"><ele>964.8571428571429</ele><time>2026-04-29T13:25:11.011Z</time></trkpt><trkpt lat="40.169711833802786" lon="9.522133618220659"><ele>964.4285714285714</ele><time>2026-04-29T13:25:12.011Z</time></trkpt><trkpt lat="40.16978774496095" lon="9.522144846228326"><ele>964.0</ele><time>2026-04-29T13:25:13.011Z</time></trkpt><trkpt lat="40.169858901278445" lon="9.522148494399481"><ele>962.8000000000001</ele><time>2026-04-29T13:25:14.011Z</time></trkpt><trkpt lat="40.16995100781666" lon="9.522195121343943"><ele>961.6000000000001</ele><time>2026-04-29T13:25:16.011Z</time></trkpt><trkpt lat="40.17000653605947" lon="9.522293162105518"><ele>960.4</ele><time>2026-04-29T13:25:18.011Z</time></trkpt><trkpt lat="40.17003571622851" lon="9.522421603213765"><ele>959.2</ele><time>2026-04-29T13:25:20.011Z</time></trkpt><trkpt lat="40.17004715324552" lon="9.522576959228434"><ele>958.0</ele><time>2026-04-29T13:25:22.011Z</time></trkpt><trkpt lat="40.17001179894402" lon="9.52269838810358"><ele>958.0</ele><time>2026-04-29T13:25:24.011Z</time></trkpt><trkpt lat="40.16994053161403" lon="9.522782278896045"><ele>958.0</ele><time>2026-04-29T13:25:26.011Z</time></trkpt><trkpt lat="40.169846306586436" lon="9.522818433801543"><ele>958.0</ele><time>2026-04-29T13:25:28.011Z</time></trkpt><trkpt lat="40.16974247014449" lon="9.522805170979735"><ele>958.0</ele><time>2026-04-29T13:25:30.011Z</time></trkpt><trkpt lat="40.169669319045624" lon="9.52280085556751"><ele>958.0</ele><time>2026-04-29T13:25:31.011Z</time></trkpt><trkpt lat="40.16958479131011" lon="9.522804788363517"><ele>959.2</ele><time>2026-04-29T13:25:32.011Z</time></trkpt><trkpt lat="40.169491312379655" lon="9.522811068718962"><ele>960.4</ele><time>2026-04-29T13:25:33.011Z</time></trkpt><trkpt lat="40.169389137968885" lon="9.522805507241626"><ele>961.6000000000001</ele><time>2026-04-29T13:25:34.011Z</time></trkpt><trkpt lat="40.169283292079534" lon="9.52279512851006"><ele>962.8000000000001</ele><time>2026-04-29T13:25:35.011Z</time></trkpt><trkpt lat="40.16918344348285" lon="9.522797056027157"><ele>964.0</ele><time>2026-04-29T13:25:36.011Z</time></trkpt><trkpt lat="40.16908874798911" lon="9.522805584068559"><ele>964.6</ele><time>2026-04-29T13:25:37.011Z</time></trkpt><trkpt lat="40.168999830921386" lon="9.522824804757471"><ele>965.2</ele><time>2026-04-29T13:25:38.011Z</time></trkpt><trkpt lat="40.1689290774136" lon="9.522851861605941"><ele>965.8000000000001</ele><time>2026-04-29T13:25:39.011Z</time></trkpt><trkpt lat="40.16883265831741" lon="9.522939763518034"><ele>966.4000000000001</ele><time>2026-04-29T13:25:41.011Z</time></trkpt><trkpt lat="40.168776920277736" lon="9.523015441296195"><ele>967.0</ele><time>2026-04-29T13:25:42.011Z</time></trkpt><trkpt lat="40.168715350401015" lon="9.523099821926168"><ele>966.9999999999999</ele><time>2026-04-29T13:25:43.011Z</time></trkpt><trkpt lat="40.16866917468555" lon="9.523176877900822"><ele>967.0</ele><time>2026-04-29T13:25:44.011Z</time></trkpt><trkpt lat="40.168637824087554" lon="9.523258170660535"><ele>967.0</ele><time>2026-04-29T13:25:45.011Z</time></trkpt><trkpt lat="40.168645236570285" lon="9.52339846270282"><ele>967.0</ele><time>2026-04-29T13:25:47.011Z</time></trkpt><trkpt lat="40.1686716225432" lon="9.523479525158216"><ele>966.9999999999999</ele><time>2026-04-29T13:25:48.011Z</time></trkpt><trkpt lat="40.16869769179168" lon="9.523569564474558"><ele>967.0</ele><time>2026-04-29T13:25:49.011Z</time></trkpt><trkpt lat="40.16871205169776" lon="9.523663365998035"><ele>966.4999999999999</ele><time>2026-04-29T13:25:50.011Z</time></trkpt><trkpt lat="40.168718997731034" lon="9.523767880092835"><ele>966.0</ele><time>2026-04-29T13:25:51.011Z</time></trkpt><trkpt lat="40.16871702876231" lon="9.523874125144468"><ele>965.5</ele><time>2026-04-29T13:25:52.011Z</time></trkpt><trkpt lat="40.16871087038088" lon="9.523973970425022"><ele>965.0</ele><time>2026-04-29T13:25:53.011Z</time></trkpt><trkpt lat="40.16870169646058" lon="9.524076164647965"><ele>964.4999999999999</ele><time>2026-04-29T13:25:54.011Z</time></trkpt><trkpt lat="40.16868688679743" lon="9.524176155924883"><ele>964.0</ele><time>2026-04-29T13:25:55.011Z</time></trkpt><trkpt lat="40.168659975330186" lon="9.524266807484722"><ele>963.9999999999999</ele><time>2026-04-29T13:25:56.011Z</time></trkpt><trkpt lat="40.16862345475425" lon="9.524362970460764"><ele>964.0</ele><time>2026-04-29T13:25:57.011Z</time></trkpt><trkpt lat="40.16857424299474" lon="9.524462777386855"><ele>964.0</ele><time>2026-04-29T13:25:58.011Z</time></trkpt><trkpt lat="40.16853179539584" lon="9.524562964970375"><ele>964.0</ele><time>2026-04-29T13:25:59.011Z</time></trkpt><trkpt lat="40.1685103712789" lon="9.524650771510613"><ele>963.9999999999999</ele><time>2026-04-29T13:26:00.011Z</time></trkpt><trkpt lat="40.1685080027811" lon="9.524741246413667"><ele>964.0</ele><time>2026-04-29T13:26:01.011Z</time></trkpt><trkpt lat="40.168513225689665" lon="9.524829692612457"><ele>963.7142857142858</ele><time>2026-04-29T13:26:02.011Z</time></trkpt><trkpt lat="40.168535643185784" lon="9.524910677100138"><ele>963.4285714285716</ele><time>2026-04-29T13:26:03.011Z</time></trkpt><trkpt lat="40.16857692137162" lon="9.52499570498681"><ele>963.1428571428571</ele><time>2026-04-29T13:26:04.011Z</time></trkpt><trkpt lat="40.168624348569246" lon="9.525071204237289"><ele>962.8571428571429</ele><time>2026-04-29T13:26:05.011Z</time></trkpt><trkpt lat="40.168664064667965" lon="9.525146721505015"><ele>962.5714285714286</ele><time>2026-04-29T13:26:06.011Z</time></trkpt><trkpt lat="40.168692600413834" lon="9.52522564808764"><ele>962.2857142857142</ele><time>2026-04-29T13:26:07.011Z</time></trkpt><trkpt lat="40.168702870797645" lon="9.525309156553796"><ele>961.9999999999999</ele><time>2026-04-29T13:26:08.011Z</time></trkpt><trkpt lat="40.1687043686741" lon="9.525408955039333"><ele>962.0000000000001</ele><time>2026-04-29T13:26:09.011Z</time></trkpt><trkpt lat="40.16869795849785" lon="9.525502584190157"><ele>962.0</ele><time>2026-04-29T13:26:10.011Z</time></trkpt><trkpt lat="40.16867374862903" lon="9.525589117887348"><ele>962.0</ele><time>2026-04-29T13:26:11.011Z</time></trkpt><trkpt lat="40.16864003355946" lon="9.525669067808034"><ele>962.0</ele><time>2026-04-29T13:26:12.011Z</time></trkpt><trkpt lat="40.16859279984517" lon="9.525752776361063"><ele>962.0000000000001</ele><time>2026-04-29T13:26:13.011Z</time></trkpt><trkpt lat="40.168541631954454" lon="9.525834397598155"><ele>962.0</ele><time>2026-04-29T13:26:14.011Z</time></trkpt><trkpt lat="40.16848734660526" lon="9.525911807735174"><ele>962.0000000000001</ele><time>2026-04-29T13:26:15.011Z</time></trkpt><trkpt lat="40.16842789110447" lon="9.52598862957064"><ele>962.0</ele><time>2026-04-29T13:26:16.011Z</time></trkpt><trkpt lat="40.16836583444258" lon="9.526057454275316"><ele>962.0</ele><time>2026-04-29T13:26:17.011Z</time></trkpt><trkpt lat="40.168303274782154" lon="9.526128253122842"><ele>962.0</ele><time>2026-04-29T13:26:18.011Z</time></trkpt><trkpt lat="40.16824594754509" lon="9.526201852401284"><ele>962.0000000000001</ele><time>2026-04-29T13:26:19.011Z</time></trkpt><trkpt lat="40.16818749388847" lon="9.526273509160017"><ele>962.0</ele><time>2026-04-29T13:26:20.011Z</time></trkpt><trkpt lat="40.168134357925226" lon="9.526344409691712"><ele>961.8333333333334</ele><time>2026-04-29T13:26:21.011Z</time></trkpt><trkpt lat="40.16807964425497" lon="9.52640259437338"><ele>961.6666666666667</ele><time>2026-04-29T13:26:22.011Z</time></trkpt><trkpt lat="40.1680120811497" lon="9.526462763106597"><ele>961.5</ele><time>2026-04-29T13:26:23.011Z</time></trkpt><trkpt lat="40.16794199322099" lon="9.526509966837839"><ele>961.3333333333333</ele><time>2026-04-29T13:26:24.012Z</time></trkpt><trkpt lat="40.16786629491069" lon="9.526555575326721"><ele>961.1666666666666</ele><time>2026-04-29T13:26:25.012Z</time></trkpt><trkpt lat="40.16778908150454" lon="9.526591907631255"><ele>961.0</ele><time>2026-04-29T13:26:26.012Z</time></trkpt><trkpt lat="40.167710534440616" lon="9.526613771496406"><ele>960.9999999999999</ele><time>2026-04-29T13:26:27.012Z</time></trkpt><trkpt lat="40.16762856181381" lon="9.526620609728168"><ele>961.0</ele><time>2026-04-29T13:26:28.012Z</time></trkpt><trkpt lat="40.16755319831057" lon="9.52660711933537"><ele>961.0</ele><time>2026-04-29T13:26:29.012Z</time></trkpt><trkpt lat="40.16748022099289" lon="9.526576145885484"><ele>961.0</ele><time>2026-04-29T13:26:30.012Z</time></trkpt><trkpt lat="40.16740718830483" lon="9.526535286397781"><ele>960.9999999999999</ele><time>2026-04-29T13:26:31.012Z</time></trkpt><trkpt lat="40.16734193803475" lon="9.526484212936055"><ele>961.0</ele><time>2026-04-29T13:26:32.011Z</time></trkpt><trkpt lat="40.16728199449012" lon="9.526444211462415"><ele>961.9999999999999</ele><time>2026-04-29T13:26:33.011Z</time></trkpt><trkpt lat="40.167220509964785" lon="9.526423885797545"><ele>963.0</ele><time>2026-04-29T13:26:34.011Z</time></trkpt><trkpt lat="40.16712622570609" lon="9.526456301764629"><ele>964.0</ele><time>2026-04-29T13:26:36.011Z</time></trkpt><trkpt lat="40.16703099976057" lon="9.526539702769238"><ele>965.0</ele><time>2026-04-29T13:26:38.011Z</time></trkpt><trkpt lat="40.16696435820303" lon="9.52659745069257"><ele>965.9999999999999</ele><time>2026-04-29T13:26:39.011Z</time></trkpt><trkpt lat="40.166892203446956" lon="9.526652914067034"><ele>967.0</ele><time>2026-04-29T13:26:40.011Z</time></trkpt><trkpt lat="40.16681545239325" lon="9.526703089785192"><ele>967.0</ele><time>2026-04-29T13:26:41.011Z</time></trkpt><trkpt lat="40.16672825709823" lon="9.526756331912976"><ele>967.0</ele><time>2026-04-29T13:26:42.011Z</time></trkpt><trkpt lat="40.16663840990835" lon="9.526813246403023"><ele>967.0</ele><time>2026-04-29T13:26:43.011Z</time></trkpt><trkpt lat="40.16655998013845" lon="9.526857901288421"><ele>967.0</ele><time>2026-04-29T13:26:44.011Z</time></trkpt><trkpt lat="40.166470417183874" lon="9.52690724976878"><ele>967.0</ele><time>2026-04-29T13:26:46.01Z</time></trkpt><trkpt lat="40.16637746883033" lon="9.526865023699601"><ele>972.0</ele><time>2026-04-29T13:26:49.01Z</time></trkpt><trkpt lat="40.16594486153735" lon="9.527026137851163"><ele>972.0</ele><time>2026-04-29T13:26:51.01Z</time></trkpt><trkpt lat="40.165873554670284" lon="9.52702374158262"><ele>972.0</ele><time>2026-04-29T13:26:52.01Z</time></trkpt><trkpt lat="40.165808887350416" lon="9.527044191809921"><ele>972.0</ele><time>2026-04-29T13:26:53.01Z</time></trkpt><trkpt lat="40.16569000300298" lon="9.52712593578971"><ele>972.0</ele><time>2026-04-29T13:26:55.011Z</time></trkpt><trkpt lat="40.165613024685435" lon="9.527175550404467"><ele>972.0</ele><time>2026-04-29T13:26:56.011Z</time></trkpt><trkpt lat="40.16553433548745" lon="9.52723579213118"><ele>972.0</ele><time>2026-04-29T13:26:57.011Z</time></trkpt><trkpt lat="40.16546514303248" lon="9.527311888030837"><ele>970.0</ele><time>2026-04-29T13:26:58.011Z</time></trkpt><trkpt lat="40.1654009857907" lon="9.527391185392501"><ele>968.0</ele><time>2026-04-29T13:26:59.011Z</time></trkpt><trkpt lat="40.16533513858844" lon="9.52746214079819"><ele>966.0</ele><time>2026-04-29T13:27:00.011Z</time></trkpt><trkpt lat="40.16525771431921" lon="9.527537866723847"><ele>964.0</ele><time>2026-04-29T13:27:01.011Z</time></trkpt><trkpt lat="40.16518284524096" lon="9.527617937002924"><ele>962.0</ele><time>2026-04-29T13:27:02.011Z</time></trkpt><trkpt lat="40.165111513758475" lon="9.527697597430336"><ele>962.0000000000001</ele><time>2026-04-29T13:27:03.011Z</time></trkpt><trkpt lat="40.16504271212723" lon="9.527770602626104"><ele>962.0</ele><time>2026-04-29T13:27:04.011Z</time></trkpt><trkpt lat="40.164973033008" lon="9.527834485776756"><ele>962.0</ele><time>2026-04-29T13:27:05.011Z</time></trkpt><trkpt lat="40.16490599222924" lon="9.5278902950057"><ele>962.0</ele><time>2026-04-29T13:27:06.011Z</time></trkpt><trkpt lat="40.16484039643415" lon="9.527954361129517"><ele>962.0000000000001</ele><time>2026-04-29T13:27:07.011Z</time></trkpt><trkpt lat="40.16478610414928" lon="9.528010384460044"><ele>962.0</ele><time>2026-04-29T13:27:08.011Z</time></trkpt><trkpt lat="40.16470663640346" lon="9.528098166646435"><ele>959.8333333333334</ele><time>2026-04-29T13:27:10.011Z</time></trkpt><trkpt lat="40.164672175224524" lon="9.528170446288808"><ele>957.6666666666667</ele><time>2026-04-29T13:27:12.011Z</time></trkpt><trkpt lat="40.164688673676736" lon="9.528306415624032"><ele>955.5</ele><time>2026-04-29T13:27:15.011Z</time></trkpt><trkpt lat="40.164744302759054" lon="9.52839137668706"><ele>953.3333333333333</ele><time>2026-04-29T13:27:17.011Z</time></trkpt><trkpt lat="40.16481319648439" lon="9.528402456692485"><ele>951.1666666666666</ele><time>2026-04-29T13:27:19.011Z</time></trkpt><trkpt lat="40.16493590175202" lon="9.528391075448562"><ele>949.0</ele><time>2026-04-29T13:27:21.011Z</time></trkpt><trkpt lat="40.16500411528797" lon="9.52839638681681"><ele>948.6</ele><time>2026-04-29T13:27:22.011Z</time></trkpt><trkpt lat="40.16506760597703" lon="9.528402647358819"><ele>948.2</ele><time>2026-04-29T13:27:23.011Z</time></trkpt><trkpt lat="40.16519285193721" lon="9.52839444991053"><ele>947.8000000000001</ele><time>2026-04-29T13:27:25.011Z</time></trkpt><trkpt lat="40.1652749569005" lon="9.528395171397978"><ele>947.4000000000001</ele><time>2026-04-29T13:27:26.011Z</time></trkpt><trkpt lat="40.165369004505756" lon="9.528401602960203"><ele>947.0</ele><time>2026-04-29T13:27:27.011Z</time></trkpt><trkpt lat="40.165469881601624" lon="9.528409220615275"><ele>947.0000000000001</ele><time>2026-04-29T13:27:28.011Z</time></trkpt><trkpt lat="40.16555337216392" lon="9.528410100494062"><ele>947.0</ele><time>2026-04-29T13:27:29.011Z</time></trkpt><trkpt lat="40.165621352258846" lon="9.528413240661889"><ele>947.0</ele><time>2026-04-29T13:27:30.011Z</time></trkpt><trkpt lat="40.16569097944824" lon="9.528406310306115"><ele>947.0</ele><time>2026-04-29T13:27:31.011Z</time></trkpt><trkpt lat="40.165761265386024" lon="9.528389198182161"><ele>947.0000000000001</ele><time>2026-04-29T13:27:32.011Z</time></trkpt><trkpt lat="40.16583734662934" lon="9.528357127041593"><ele>947.0</ele><time>2026-04-29T13:27:33.011Z</time></trkpt><trkpt lat="40.165972547743465" lon="9.528520039408408"><ele>945.6666666666667</ele><time>2026-04-29T13:27:34.011Z</time></trkpt><trkpt lat="40.166073580427614" lon="9.528466179685772"><ele>944.3333333333334</ele><time>2026-04-29T13:27:36.011Z</time></trkpt><trkpt lat="40.166137600324625" lon="9.528454537197533"><ele>943.0</ele><time>2026-04-29T13:27:55.011Z</time></trkpt><trkpt lat="40.16621740447523" lon="9.52845028130004"><ele>941.6666666666667</ele><time>2026-04-29T13:29:55.011Z</time></trkpt><trkpt lat="40.166284304350974" lon="9.528450343559598"><ele>940.3333333333334</ele><time>2026-04-29T13:29:57.011Z</time></trkpt><trkpt lat="40.166395871076524" lon="9.52843083932956"><ele>939.0</ele><time>2026-04-29T13:29:59.011Z</time></trkpt><trkpt lat="40.16646669519029" lon="9.52844576635743"><ele>938.2</ele><time>2026-04-29T13:30:00.011Z</time></trkpt><trkpt lat="40.16655074921047" lon="9.5284532732348"><ele>937.4000000000001</ele><time>2026-04-29T13:30:01.011Z</time></trkpt><trkpt lat="40.166645022764385" lon="9.528450869141007"><ele>936.6</ele><time>2026-04-29T13:30:02.011Z</time></trkpt><trkpt lat="40.16673934438216" lon="9.528443298796224"><ele>935.8</ele><time>2026-04-29T13:30:03.011Z</time></trkpt><trkpt lat="40.16683957728826" lon="9.528428980233786"><ele>935.0</ele><time>2026-04-29T13:30:04.011Z</time></trkpt><trkpt lat="40.16694212642244" lon="9.528405201015916"><ele>935.0</ele><time>2026-04-29T13:30:05.011Z</time></trkpt><trkpt lat="40.1670526620445" lon="9.528372730836214"><ele>935.0</ele><time>2026-04-29T13:30:06.011Z</time></trkpt><trkpt lat="40.16716466263691" lon="9.528332347342678"><ele>935.0</ele><time>2026-04-29T13:30:07.011Z</time></trkpt><trkpt lat="40.1672873816791" lon="9.52828997488008"><ele>935.0</ele><time>2026-04-29T13:30:08.011Z</time></trkpt><trkpt lat="40.16741078244636" lon="9.52823572479868"><ele>933.25</ele><time>2026-04-29T13:30:09.011Z</time></trkpt><trkpt lat="40.16753671621928" lon="9.528183050758246"><ele>931.5</ele><time>2026-04-29T13:30:10.011Z</time></trkpt><trkpt lat="40.16765839477768" lon="9.528131245531366"><ele>929.75</ele><time>2026-04-29T13:30:11.011Z</time></trkpt><trkpt lat="40.167775338897975" lon="9.528078356475193"><ele>928.0</ele><time>2026-04-29T13:30:12.011Z</time></trkpt><trkpt lat="40.167892147261796" lon="9.528022318177687"><ele>928.0</ele><time>2026-04-29T13:30:13.011Z</time></trkpt><trkpt lat="40.16800758417126" lon="9.527956442638677"><ele>928.0</ele><time>2026-04-29T13:30:14.011Z</time></trkpt><trkpt lat="40.16812095961697" lon="9.527879756528515"><ele>928.0</ele><time>2026-04-29T13:30:15.011Z</time></trkpt><trkpt lat="40.168231655842334" lon="9.527794996561548"><ele>928.0</ele><time>2026-04-29T13:30:16.011Z</time></trkpt><trkpt lat="40.16833305994205" lon="9.527711011968526"><ele>927.75</ele><time>2026-04-29T13:30:17.011Z</time></trkpt><trkpt lat="40.168434392542046" lon="9.527621363484954"><ele>927.5</ele><time>2026-04-29T13:30:18.011Z</time></trkpt><trkpt lat="40.16853783316507" lon="9.527531598330135"><ele>927.25</ele><time>2026-04-29T13:30:19.011Z</time></trkpt><trkpt lat="40.16864255145629" lon="9.527441691711102"><ele>927.0</ele><time>2026-04-29T13:30:20.012Z</time></trkpt><trkpt lat="40.16875133741313" lon="9.527349941856475"><ele>927.0</ele><time>2026-04-29T13:30:21.012Z</time></trkpt><trkpt lat="40.16885984247073" lon="9.527256704876054"><ele>927.0</ele><time>2026-04-29T13:30:22.012Z</time></trkpt><trkpt lat="40.16896686357843" lon="9.527168233615493"><ele>927.0</ele><time>2026-04-29T13:30:23.012Z</time></trkpt><trkpt lat="40.169072280773534" lon="9.527076976449486"><ele>927.0</ele><time>2026-04-29T13:30:24.012Z</time></trkpt><trkpt lat="40.169177567491815" lon="9.526984096207743"><ele>926.25</ele><time>2026-04-29T13:30:25.012Z</time></trkpt><trkpt lat="40.169280099066555" lon="9.52689184919376"><ele>925.5</ele><time>2026-04-29T13:30:26.012Z</time></trkpt><trkpt lat="40.169382148313844" lon="9.526793520659124"><ele>924.75</ele><time>2026-04-29T13:30:27.012Z</time></trkpt><trkpt lat="40.169476290767676" lon="9.52669293017179"><ele>924.0</ele><time>2026-04-29T13:30:28.012Z</time></trkpt><trkpt lat="40.16955507165713" lon="9.526581669329335"><ele>924.0</ele><time>2026-04-29T13:30:29.012Z</time></trkpt><trkpt lat="40.169624464531246" lon="9.526457684111959"><ele>924.0</ele><time>2026-04-29T13:30:30.012Z</time></trkpt><trkpt lat="40.16967910116637" lon="9.526327142938934"><ele>924.0</ele><time>2026-04-29T13:30:31.012Z</time></trkpt><trkpt lat="40.16972415389234" lon="9.526189058072054"><ele>924.0</ele><time>2026-04-29T13:30:32.012Z</time></trkpt><trkpt lat="40.169768573599264" lon="9.52605595601374"><ele>922.1666666666666</ele><time>2026-04-29T13:30:33.012Z</time></trkpt><trkpt lat="40.16981773053564" lon="9.525937396757234"><ele>920.3333333333333</ele><time>2026-04-29T13:30:34.012Z</time></trkpt><trkpt lat="40.169867265234664" lon="9.525850789825892"><ele>918.5</ele><time>2026-04-29T13:30:35.012Z</time></trkpt><trkpt lat="40.16992175438954" lon="9.52579554079304"><ele>916.6666666666666</ele><time>2026-04-29T13:30:36.012Z</time></trkpt><trkpt lat="40.16998877618741" lon="9.525768901202317"><ele>914.8333333333333</ele><time>2026-04-29T13:30:37.012Z</time></trkpt><trkpt lat="40.17006359215125" lon="9.52577508840681"><ele>913.0</ele><time>2026-04-29T13:30:38.012Z</time></trkpt><trkpt lat="40.17013811200045" lon="9.525818556423996"><ele>913.0</ele><time>2026-04-29T13:30:39.012Z</time></trkpt><trkpt lat="40.170202639979465" lon="9.525887721109529"><ele>913.0</ele><time>2026-04-29T13:30:40.012Z</time></trkpt><trkpt lat="40.170251873863066" lon="9.525985620963286"><ele>913.0</ele><time>2026-04-29T13:30:41.012Z</time></trkpt><trkpt lat="40.170289572406055" lon="9.526104872974726"><ele>913.0</ele><time>2026-04-29T13:30:42.012Z</time></trkpt><trkpt lat="40.170329080588765" lon="9.526228646365983"><ele>913.0</ele><time>2026-04-29T13:30:43.012Z</time></trkpt><trkpt lat="40.170377072187556" lon="9.526354011664646"><ele>913.0</ele><time>2026-04-29T13:30:44.012Z</time></trkpt><trkpt lat="40.17042909761161" lon="9.526470782437917"><ele>913.0</ele><time>2026-04-29T13:30:45.012Z</time></trkpt><trkpt lat="40.170490728933316" lon="9.52657953663607"><ele>913.0</ele><time>2026-04-29T13:30:46.012Z</time></trkpt><trkpt lat="40.17056167864758" lon="9.526676818119068"><ele>913.0</ele><time>2026-04-29T13:30:47.011Z</time></trkpt><trkpt lat="40.170645337998415" lon="9.526760613155798"><ele>913.0</ele><time>2026-04-29T13:30:48.011Z</time></trkpt><trkpt lat="40.170739448006884" lon="9.526835962958236"><ele>913.0</ele><time>2026-04-29T13:30:49.011Z</time></trkpt><trkpt lat="40.17084320922303" lon="9.526894326166152"><ele>913.0</ele><time>2026-04-29T13:30:50.011Z</time></trkpt><trkpt lat="40.17095500784351" lon="9.52693955931209"><ele>913.0</ele><time>2026-04-29T13:30:51.011Z</time></trkpt><trkpt lat="40.17107369630872" lon="9.526983767625884"><ele>913.0</ele><time>2026-04-29T13:30:52.011Z</time></trkpt><trkpt lat="40.17119512524363" lon="9.52702780375717"><ele>910.75</ele><time>2026-04-29T13:30:53.011Z</time></trkpt><trkpt lat="40.171321490566406" lon="9.527073161847827"><ele>908.5</ele><time>2026-04-29T13:30:54.011Z</time></trkpt><trkpt lat="40.17145071190289" lon="9.527112198603502"><ele>906.25</ele><time>2026-04-29T13:30:55.011Z</time></trkpt><trkpt lat="40.17157402967149" lon="9.527148385066466"><ele>904.0</ele><time>2026-04-29T13:30:56.011Z</time></trkpt><trkpt lat="40.17170077832931" lon="9.527154408223122"><ele>904.0</ele><time>2026-04-29T13:30:57.011Z</time></trkpt><trkpt lat="40.17182819943775" lon="9.527148894918415"><ele>904.0</ele><time>2026-04-29T13:30:58.011Z</time></trkpt><trkpt lat="40.17195439583404" lon="9.527130195657303"><ele>904.0</ele><time>2026-04-29T13:30:59.011Z</time></trkpt><trkpt lat="40.172083035874365" lon="9.527103904503976"><ele>904.0</ele><time>2026-04-29T13:31:00.011Z</time></trkpt><trkpt lat="40.172214862851" lon="9.527077582184637"><ele>904.25</ele><time>2026-04-29T13:31:01.011Z</time></trkpt><trkpt lat="40.1723431304906" lon="9.527050286285736"><ele>904.5</ele><time>2026-04-29T13:31:02.011Z</time></trkpt><trkpt lat="40.17247109799207" lon="9.527022758333828"><ele>904.75</ele><time>2026-04-29T13:31:03.011Z</time></trkpt><trkpt lat="40.172600328246176" lon="9.526996474581134"><ele>905.0</ele><time>2026-04-29T13:31:04.011Z</time></trkpt><trkpt lat="40.17273046005288" lon="9.526968086286153"><ele>905.0</ele><time>2026-04-29T13:31:05.011Z</time></trkpt><trkpt lat="40.172859642623564" lon="9.526937753580794"><ele>905.0</ele><time>2026-04-29T13:31:06.011Z</time></trkpt><trkpt lat="40.17298676120747" lon="9.52690542345839"><ele>905.0</ele><time>2026-04-29T13:31:07.011Z</time></trkpt><trkpt lat="40.17310872819851" lon="9.526877949441584"><ele>905.0</ele><time>2026-04-29T13:31:08.012Z</time></trkpt><trkpt lat="40.17321521612072" lon="9.526857681562328"><ele>902.2</ele><time>2026-04-29T13:31:09.012Z</time></trkpt><trkpt lat="40.17331910902436" lon="9.526852861544429"><ele>899.4</ele><time>2026-04-29T13:31:10.012Z</time></trkpt><trkpt lat="40.17342915170391" lon="9.526865673470201"><ele>896.5999999999999</ele><time>2026-04-29T13:31:11.012Z</time></trkpt><trkpt lat="40.17353424655756" lon="9.526895229242742"><ele>893.8</ele><time>2026-04-29T13:31:12.012Z</time></trkpt><trkpt lat="40.173635318695034" lon="9.526941085620383"><ele>891.0</ele><time>2026-04-29T13:31:13.012Z</time></trkpt><trkpt lat="40.173719574146844" lon="9.526996272249876"><ele>891.0</ele><time>2026-04-29T13:31:14.012Z</time></trkpt><trkpt lat="40.17380053272576" lon="9.527049764864737"><ele>890.9999999999999</ele><time>2026-04-29T13:31:15.012Z</time></trkpt><trkpt lat="40.173881078652606" lon="9.527086399162169"><ele>890.9999999999999</ele><time>2026-04-29T13:31:16.012Z</time></trkpt><trkpt lat="40.173963614787084" lon="9.527090215254201"><ele>891.0</ele><time>2026-04-29T13:31:17.012Z</time></trkpt><trkpt lat="40.174047167793255" lon="9.527112112893866"><ele>891.0</ele><time>2026-04-29T13:31:18.012Z</time></trkpt><trkpt lat="40.174522678595636" lon="9.527125587384916"><ele>895.75</ele><time>2026-04-29T13:31:19.012Z</time></trkpt><trkpt lat="40.17465111193035" lon="9.527156021409313"><ele>900.5</ele><time>2026-04-29T13:31:20.012Z</time></trkpt><trkpt lat="40.17477887906828" lon="9.527200352366204"><ele>905.25</ele><time>2026-04-29T13:31:21.012Z</time></trkpt><trkpt lat="40.174902405589705" lon="9.52723201374183"><ele>910.0</ele><time>2026-04-29T13:31:22.012Z</time></trkpt><trkpt lat="40.17502259838903" lon="9.52725564491717"><ele>910.0</ele><time>2026-04-29T13:31:23.012Z</time></trkpt><trkpt lat="40.175141280354815" lon="9.527269328169364"><ele>910.0</ele><time>2026-04-29T13:31:24.012Z</time></trkpt><trkpt lat="40.175255102166275" lon="9.527269782458665"><ele>910.0</ele><time>2026-04-29T13:31:25.012Z</time></trkpt><trkpt lat="40.175364215486454" lon="9.527259261957266"><ele>910.0</ele><time>2026-04-29T13:31:26.012Z</time></trkpt><trkpt lat="40.17547089844054" lon="9.527273016672606"><ele>910.0</ele><time>2026-04-29T13:31:27.012Z</time></trkpt><trkpt lat="40.17557214073868" lon="9.527326878737494"><ele>910.0</ele><time>2026-04-29T13:31:28.012Z</time></trkpt><trkpt lat="40.1756715283061" lon="9.527335897367573"><ele>910.0</ele><time>2026-04-29T13:31:29.012Z</time></trkpt><trkpt lat="40.17575038241138" lon="9.527335707768717"><ele>910.0</ele><time>2026-04-29T13:31:30.012Z</time></trkpt><trkpt lat="40.17582845799926" lon="9.527283243786265"><ele>910.0</ele><time>2026-04-29T13:31:31.012Z</time></trkpt><trkpt lat="40.175908794067944" lon="9.527228901938031"><ele>909.4999999999999</ele><time>2026-04-29T13:31:32.012Z</time></trkpt><trkpt lat="40.17598867819588" lon="9.527162256563633"><ele>909.0</ele><time>2026-04-29T13:31:33.012Z</time></trkpt><trkpt lat="40.17607231969512" lon="9.527104029612955"><ele>908.5</ele><time>2026-04-29T13:31:34.012Z</time></trkpt><trkpt lat="40.17614630235548" lon="9.527063255524354"><ele>908.0</ele><time>2026-04-29T13:31:35.012Z</time></trkpt><trkpt lat="40.17622984818912" lon="9.527037806001404"><ele>907.4999999999999</ele><time>2026-04-29T13:31:36.012Z</time></trkpt><trkpt lat="40.17632000415168" lon="9.527047057099479"><ele>907.0</ele><time>2026-04-29T13:31:37.012Z</time></trkpt><trkpt lat="40.17641629539145" lon="9.527075615869302"><ele>907.0</ele><time>2026-04-29T13:31:38.012Z</time></trkpt><trkpt lat="40.17651861929676" lon="9.527109171650949"><ele>907.0</ele><time>2026-04-29T13:31:39.012Z</time></trkpt><trkpt lat="40.17663038756725" lon="9.527158087680071"><ele>907.0</ele><time>2026-04-29T13:31:40.012Z</time></trkpt><trkpt lat="40.17672770732024" lon="9.52724881573649"><ele>907.0</ele><time>2026-04-29T13:31:41.012Z</time></trkpt><trkpt lat="40.17683616644841" lon="9.527319319855824"><ele>904.25</ele><time>2026-04-29T13:31:42.012Z</time></trkpt><trkpt lat="40.17695728473565" lon="9.52739270378318"><ele>901.5</ele><time>2026-04-29T13:31:43.012Z</time></trkpt><trkpt lat="40.17706698581286" lon="9.527464066320881"><ele>898.75</ele><time>2026-04-29T13:31:44.012Z</time></trkpt><trkpt lat="40.177171568065724" lon="9.527545219973529"><ele>896.0</ele><time>2026-04-29T13:31:45.012Z</time></trkpt><trkpt lat="40.177269735597925" lon="9.527647572770105"><ele>896.0</ele><time>2026-04-29T13:31:46.012Z</time></trkpt><trkpt lat="40.17734310013521" lon="9.52776120375889"><ele>896.0</ele><time>2026-04-29T13:31:47.012Z</time></trkpt><trkpt lat="40.177402561534144" lon="9.527895767993845"><ele>896.0</ele><time>2026-04-29T13:31:48.012Z</time></trkpt><trkpt lat="40.1774918918227" lon="9.528029466827066"><ele>896.0</ele><time>2026-04-29T13:31:49.012Z</time></trkpt><trkpt lat="40.17757930646188" lon="9.528162414211826"><ele>893.25</ele><time>2026-04-29T13:31:50.012Z</time></trkpt><trkpt lat="40.17766506870282" lon="9.528281898497314"><ele>890.5</ele><time>2026-04-29T13:31:51.012Z</time></trkpt><trkpt lat="40.177736329142604" lon="9.52840895596464"><ele>887.75</ele><time>2026-04-29T13:31:52.012Z</time></trkpt><trkpt lat="40.17783023457987" lon="9.52852277305676"><ele>885.0</ele><time>2026-04-29T13:31:53.012Z</time></trkpt><trkpt lat="40.17790118297747" lon="9.528625820006978"><ele>885.0</ele><time>2026-04-29T13:31:54.012Z</time></trkpt><trkpt lat="40.17799277486848" lon="9.528713474094133"><ele>885.0</ele><time>2026-04-29T13:31:55.012Z</time></trkpt><trkpt lat="40.17809648523066" lon="9.528800052595633"><ele>885.0</ele><time>2026-04-29T13:31:56.012Z</time></trkpt><trkpt lat="40.17819024053472" lon="9.528895537775197"><ele>885.0</ele><time>2026-04-29T13:31:57.012Z</time></trkpt><trkpt lat="40.17828419032511" lon="9.528968076604356"><ele>883.8</ele><time>2026-04-29T13:31:58.012Z</time></trkpt><trkpt lat="40.17838076793474" lon="9.529032131089503"><ele>882.6</ele><time>2026-04-29T13:31:59.012Z</time></trkpt><trkpt lat="40.17848418851666" lon="9.529074460099869"><ele>881.4000000000001</ele><time>2026-04-29T13:32:00.012Z</time></trkpt><trkpt lat="40.1785986556404" lon="9.52909548886538"><ele>880.2</ele><time>2026-04-29T13:32:01.012Z</time></trkpt><trkpt lat="40.17870222928015" lon="9.529126369352184"><ele>879.0</ele><time>2026-04-29T13:32:02.012Z</time></trkpt><trkpt lat="40.17880333858872" lon="9.529173897848457"><ele>879.0</ele><time>2026-04-29T13:32:03.012Z</time></trkpt><trkpt lat="40.17887380160524" lon="9.529240832277127"><ele>879.0000000000001</ele><time>2026-04-29T13:32:04.012Z</time></trkpt><trkpt lat="40.178936168411724" lon="9.529325643178916"><ele>879.0000000000001</ele><time>2026-04-29T13:32:05.012Z</time></trkpt><trkpt lat="40.17896945569374" lon="9.52944921202133"><ele>879.0</ele><time>2026-04-29T13:32:06.012Z</time></trkpt><trkpt lat="40.17900639052194" lon="9.529575226349857"><ele>879.0</ele><time>2026-04-29T13:32:07.012Z</time></trkpt><trkpt lat="40.179066770398954" lon="9.529692080901853"><ele>876.8000000000001</ele><time>2026-04-29T13:32:08.012Z</time></trkpt><trkpt lat="40.1791197536873" lon="9.529808502290756"><ele>874.6000000000001</ele><time>2026-04-29T13:32:09.012Z</time></trkpt><trkpt lat="40.17918310969718" lon="9.529913021883033"><ele>872.4</ele><time>2026-04-29T13:32:10.012Z</time></trkpt><trkpt lat="40.179241931114326" lon="9.530027477132636"><ele>870.2</ele><time>2026-04-29T13:32:11.012Z</time></trkpt><trkpt lat="40.17927748369594" lon="9.530130726607501"><ele>868.0</ele><time>2026-04-29T13:32:12.012Z</time></trkpt><trkpt lat="40.17929260182149" lon="9.530240503013204"><ele>868.0</ele><time>2026-04-29T13:32:13.012Z</time></trkpt><trkpt lat="40.179286042382095" lon="9.530346692740782"><ele>868.0</ele><time>2026-04-29T13:32:14.012Z</time></trkpt><trkpt lat="40.17923434942985" lon="9.530452432989218"><ele>868.0</ele><time>2026-04-29T13:32:15.012Z</time></trkpt><trkpt lat="40.179191623084535" lon="9.530569049509342"><ele>868.0</ele><time>2026-04-29T13:32:16.012Z</time></trkpt><trkpt lat="40.17915980391981" lon="9.530703586653745"><ele>868.0</ele><time>2026-04-29T13:32:17.012Z</time></trkpt><trkpt lat="40.1791159874617" lon="9.530831293731255"><ele>867.8</ele><time>2026-04-29T13:32:18.012Z</time></trkpt><trkpt lat="40.17907818211326" lon="9.530960751530019"><ele>867.5999999999999</ele><time>2026-04-29T13:32:19.012Z</time></trkpt><trkpt lat="40.1790530004214" lon="9.531102692198445"><ele>867.4000000000001</ele><time>2026-04-29T13:32:20.012Z</time></trkpt><trkpt lat="40.179028810729186" lon="9.531243859700679"><ele>867.2</ele><time>2026-04-29T13:32:21.012Z</time></trkpt><trkpt lat="40.17901321314404" lon="9.531383744936406"><ele>867.0</ele><time>2026-04-29T13:32:22.012Z</time></trkpt><trkpt lat="40.17900091051605" lon="9.531513244278313"><ele>865.0</ele><time>2026-04-29T13:32:23.012Z</time></trkpt><trkpt lat="40.17901493738292" lon="9.531630109307303"><ele>863.0</ele><time>2026-04-29T13:32:24.012Z</time></trkpt><trkpt lat="40.179035391692466" lon="9.5317636623964"><ele>861.0</ele><time>2026-04-29T13:32:25.012Z</time></trkpt><trkpt lat="40.1790466414241" lon="9.53190823751825"><ele>859.0</ele><time>2026-04-29T13:32:26.012Z</time></trkpt><trkpt lat="40.179040153684724" lon="9.532049835061418"><ele>857.0</ele><time>2026-04-29T13:32:27.012Z</time></trkpt><trkpt lat="40.17901465620674" lon="9.532186228268877"><ele>858.1666666666667</ele><time>2026-04-29T13:32:28.012Z</time></trkpt><trkpt lat="40.179000915491415" lon="9.532305828167486"><ele>859.3333333333334</ele><time>2026-04-29T13:32:29.012Z</time></trkpt><trkpt lat="40.178984752213864" lon="9.53241222424604"><ele>860.5</ele><time>2026-04-29T13:32:30.012Z</time></trkpt><trkpt lat="40.17902064343874" lon="9.532514942638114"><ele>861.6666666666667</ele><time>2026-04-29T13:32:31.012Z</time></trkpt><trkpt lat="40.179076545309584" lon="9.532609792195672"><ele>862.8333333333334</ele><time>2026-04-29T13:32:32.012Z</time></trkpt><trkpt lat="40.17913542637662" lon="9.532689875152908"><ele>864.0</ele><time>2026-04-29T13:32:33.012Z</time></trkpt><trkpt lat="40.179211973841255" lon="9.532745148732362"><ele>864.0</ele><time>2026-04-29T13:32:34.012Z</time></trkpt><trkpt lat="40.17930461014024" lon="9.532779216347778"><ele>864.0000000000001</ele><time>2026-04-29T13:32:35.012Z</time></trkpt><trkpt lat="40.1794097850881" lon="9.53279893020403"><ele>864.0000000000001</ele><time>2026-04-29T13:32:36.012Z</time></trkpt><trkpt lat="40.17952116526383" lon="9.532825748905747"><ele>864.0</ele><time>2026-04-29T13:32:37.012Z</time></trkpt><trkpt lat="40.17963050089332" lon="9.532838989720755"><ele>864.0</ele><time>2026-04-29T13:32:38.012Z</time></trkpt><trkpt lat="40.179743682492024" lon="9.532845544856515"><ele>859.0</ele><time>2026-04-29T13:32:39.013Z</time></trkpt><trkpt lat="40.17986296979964" lon="9.532831562612204"><ele>854.0</ele><time>2026-04-29T13:32:40.013Z</time></trkpt><trkpt lat="40.17998994844097" lon="9.532820039469739"><ele>849.0</ele><time>2026-04-29T13:32:41.013Z</time></trkpt><trkpt lat="40.18011342676748" lon="9.532799621030568"><ele>844.0</ele><time>2026-04-29T13:32:42.013Z</time></trkpt><trkpt lat="40.18023465120009" lon="9.532778997281776"><ele>844.0</ele><time>2026-04-29T13:32:43.013Z</time></trkpt><trkpt lat="40.18035772324482" lon="9.532777229348355"><ele>844.0</ele><time>2026-04-29T13:32:44.013Z</time></trkpt><trkpt lat="40.18047522606365" lon="9.532816976416118"><ele>844.0</ele><time>2026-04-29T13:32:45.013Z</time></trkpt><trkpt lat="40.180597932337086" lon="9.532850842389674"><ele>844.0</ele><time>2026-04-29T13:32:46.013Z</time></trkpt><trkpt lat="40.18072948804963" lon="9.532893727722305"><ele>854.25</ele><time>2026-04-29T13:32:47.013Z</time></trkpt><trkpt lat="40.180857691826056" lon="9.532937291824629"><ele>864.5</ele><time>2026-04-29T13:32:48.013Z</time></trkpt><trkpt lat="40.18098064858808" lon="9.532980898611164"><ele>874.75</ele><time>2026-04-29T13:32:49.013Z</time></trkpt><trkpt lat="40.18109602517197" lon="9.53301396278787"><ele>885.0</ele><time>2026-04-29T13:32:50.011Z</time></trkpt><trkpt lat="40.18120269767952" lon="9.53303093365111"><ele>885.0</ele><time>2026-04-29T13:32:51.011Z</time></trkpt><trkpt lat="40.18131457060386" lon="9.533017825672871"><ele>885.0</ele><time>2026-04-29T13:32:52.011Z</time></trkpt><trkpt lat="40.18142047438342" lon="9.532957844607356"><ele>885.0</ele><time>2026-04-29T13:32:53.011Z</time></trkpt><trkpt lat="40.18151931149857" lon="9.532883305361619"><ele>885.0</ele><time>2026-04-29T13:32:54.012Z</time></trkpt><trkpt lat="40.18162060314152" lon="9.532836008629562"><ele>885.0</ele><time>2026-04-29T13:32:55.012Z</time></trkpt><trkpt lat="40.18171979408351" lon="9.532818658634955"><ele>883.2</ele><time>2026-04-29T13:32:56.012Z</time></trkpt><trkpt lat="40.18180293505396" lon="9.532809949271922"><ele>881.4</ele><time>2026-04-29T13:32:57.011Z</time></trkpt><trkpt lat="40.18189871047068" lon="9.532863907398244"><ele>879.5999999999999</ele><time>2026-04-29T13:32:58.011Z</time></trkpt><trkpt lat="40.18201448069552" lon="9.532893779129632"><ele>877.8</ele><time>2026-04-29T13:32:59.012Z</time></trkpt><trkpt lat="40.182118247112264" lon="9.532969432984823"><ele>876.0</ele><time>2026-04-29T13:33:00.011Z</time></trkpt><trkpt lat="40.1822291983684" lon="9.533026727652615"><ele>876.0</ele><time>2026-04-29T13:33:01.011Z</time></trkpt><trkpt lat="40.18234018731981" lon="9.53308493872316"><ele>876.0</ele><time>2026-04-29T13:33:02.011Z</time></trkpt><trkpt lat="40.18246148180476" lon="9.533142564461887"><ele>876.0</ele><time>2026-04-29T13:33:03.011Z</time></trkpt><trkpt lat="40.18259346509771" lon="9.53319136724966"><ele>876.0</ele><time>2026-04-29T13:33:04.011Z</time></trkpt><trkpt lat="40.18272681194155" lon="9.53322305132023"><ele>874.25</ele><time>2026-04-29T13:33:05.011Z</time></trkpt><trkpt lat="40.182863696975616" lon="9.53324013784507"><ele>872.5</ele><time>2026-04-29T13:33:06.011Z</time></trkpt><trkpt lat="40.18300308115895" lon="9.533253623058604"><ele>870.75</ele><time>2026-04-29T13:33:07.011Z</time></trkpt><trkpt lat="40.183145234906654" lon="9.533273292490321"><ele>869.0</ele><time>2026-04-29T13:33:08.011Z</time></trkpt><trkpt lat="40.18328824500704" lon="9.53329235340032"><ele>865.25</ele><time>2026-04-29T13:33:09.011Z</time></trkpt><trkpt lat="40.183425671529484" lon="9.533312918630054"><ele>861.5</ele><time>2026-04-29T13:33:10.011Z</time></trkpt><trkpt lat="40.18355593727723" lon="9.533340480513449"><ele>857.75</ele><time>2026-04-29T13:33:11.011Z</time></trkpt><trkpt lat="40.1836855053131" lon="9.533383402249543"><ele>854.0</ele><time>2026-04-29T13:33:12.011Z</time></trkpt><trkpt lat="40.18381077576861" lon="9.533429067114753"><ele>854.0</ele><time>2026-04-29T13:33:13.011Z</time></trkpt><trkpt lat="40.18393113153999" lon="9.53348182753735"><ele>854.0</ele><time>2026-04-29T13:33:14.011Z</time></trkpt><trkpt lat="40.18405267861037" lon="9.533528592255893"><ele>854.0</ele><time>2026-04-29T13:33:15.011Z</time></trkpt><trkpt lat="40.1841628062018" lon="9.533597495360134"><ele>854.0</ele><time>2026-04-29T13:33:16.011Z</time></trkpt><trkpt lat="40.18426612124434" lon="9.533674579162858"><ele>857.25</ele><time>2026-04-29T13:33:17.011Z</time></trkpt><trkpt lat="40.18435090460203" lon="9.53378948663715"><ele>860.5</ele><time>2026-04-29T13:33:18.011Z</time></trkpt><trkpt lat="40.1844198767986" lon="9.533919458621213"><ele>863.75</ele><time>2026-04-29T13:33:19.011Z</time></trkpt><trkpt lat="40.18443907954869" lon="9.534065681740564"><ele>867.0</ele><time>2026-04-29T13:33:20.011Z</time></trkpt><trkpt lat="40.18447587581842" lon="9.534203538147636"><ele>867.0</ele><time>2026-04-29T13:33:21.011Z</time></trkpt><trkpt lat="40.184523352289965" lon="9.534301563104219"><ele>867.0</ele><time>2026-04-29T13:33:22.011Z</time></trkpt><trkpt lat="40.184572345798635" lon="9.534380463656698"><ele>867.0</ele><time>2026-04-29T13:33:23.011Z</time></trkpt><trkpt lat="40.18464381846933" lon="9.534418207738831"><ele>867.0</ele><time>2026-04-29T13:33:24.011Z</time></trkpt><trkpt lat="40.18472629756854" lon="9.534420469421558"><ele>867.0</ele><time>2026-04-29T13:33:25.011Z</time></trkpt><trkpt lat="40.18481014662181" lon="9.5344008475101"><ele>867.0</ele><time>2026-04-29T13:33:26.011Z</time></trkpt><trkpt lat="40.18490592351995" lon="9.534376112632037"><ele>861.2</ele><time>2026-04-29T13:33:27.011Z</time></trkpt><trkpt lat="40.18501711418625" lon="9.53434375327077"><ele>855.4000000000001</ele><time>2026-04-29T13:33:28.011Z</time></trkpt><trkpt lat="40.18512197440778" lon="9.534321817581406"><ele>849.5999999999999</ele><time>2026-04-29T13:33:29.011Z</time></trkpt><trkpt lat="40.18522772227131" lon="9.534316304841873"><ele>843.8</ele><time>2026-04-29T13:33:30.011Z</time></trkpt><trkpt lat="40.18531245642264" lon="9.5343279697328"><ele>838.0</ele><time>2026-04-29T13:33:31.011Z</time></trkpt><trkpt lat="40.18538113398051" lon="9.534376550145101"><ele>838.0</ele><time>2026-04-29T13:33:32.011Z</time></trkpt><trkpt lat="40.18543247042072" lon="9.534443883712349"><ele>838.0</ele><time>2026-04-29T13:33:33.011Z</time></trkpt><trkpt lat="40.185475845114134" lon="9.534532047714569"><ele>838.0</ele><time>2026-04-29T13:33:34.011Z</time></trkpt><trkpt lat="40.18549862050922" lon="9.53466318425024"><ele>838.0</ele><time>2026-04-29T13:33:35.011Z</time></trkpt><trkpt lat="40.18554219842063" lon="9.534782072761757"><ele>838.0</ele><time>2026-04-29T13:33:36.011Z</time></trkpt><trkpt lat="40.18558010976153" lon="9.534906263380263"><ele>843.8</ele><time>2026-04-29T13:33:37.011Z</time></trkpt><trkpt lat="40.18561205067042" lon="9.535022941872937"><ele>849.5999999999999</ele><time>2026-04-29T13:33:38.011Z</time></trkpt><trkpt lat="40.185627183840886" lon="9.535152391479846"><ele>855.4000000000001</ele><time>2026-04-29T13:33:39.011Z</time></trkpt><trkpt lat="40.18563117059817" lon="9.535289399917987"><ele>861.2</ele><time>2026-04-29T13:33:40.011Z</time></trkpt><trkpt lat="40.18563123071984" lon="9.535429886053564"><ele>867.0</ele><time>2026-04-29T13:33:41.011Z</time></trkpt><trkpt lat="40.185630633856206" lon="9.535572135675674"><ele>870.6666666666666</ele><time>2026-04-29T13:33:42.011Z</time></trkpt><trkpt lat="40.18563362213803" lon="9.5357032332291"><ele>874.3333333333333</ele><time>2026-04-29T13:33:43.011Z</time></trkpt><trkpt lat="40.185644570277574" lon="9.535805070185848"><ele>878.0</ele><time>2026-04-29T13:33:44.011Z</time></trkpt><trkpt lat="40.18567505276757" lon="9.535888937733883"><ele>881.6666666666666</ele><time>2026-04-29T13:33:45.011Z</time></trkpt><trkpt lat="40.18573735099472" lon="9.535957715260924"><ele>885.3333333333333</ele><time>2026-04-29T13:33:46.011Z</time></trkpt><trkpt lat="40.185815199480054" lon="9.536021061620238"><ele>889.0</ele><time>2026-04-29T13:33:47.011Z</time></trkpt><trkpt lat="40.1858928046292" lon="9.536101404890443"><ele>885.0</ele><time>2026-04-29T13:33:48.011Z</time></trkpt><trkpt lat="40.18596302071745" lon="9.536202451659726"><ele>881.0000000000001</ele><time>2026-04-29T13:33:49.011Z</time></trkpt><trkpt lat="40.18603640399229" lon="9.53628290587754"><ele>877.0000000000001</ele><time>2026-04-29T13:33:50.012Z</time></trkpt><trkpt lat="40.18610398599848" lon="9.536333678724748"><ele>873.0</ele><time>2026-04-29T13:33:51.012Z</time></trkpt><trkpt lat="40.18616890669359" lon="9.536368429262996"><ele>869.0</ele><time>2026-04-29T13:33:52.012Z</time></trkpt><trkpt lat="40.18626977999068" lon="9.536341638073178"><ele>869.0</ele><time>2026-04-29T13:33:53.012Z</time></trkpt><trkpt lat="40.186344041154406" lon="9.536282551602122"><ele>869.0000000000001</ele><time>2026-04-29T13:33:54.012Z</time></trkpt><trkpt lat="40.186428057015924" lon="9.536207122472407"><ele>869.0000000000001</ele><time>2026-04-29T13:33:55.012Z</time></trkpt><trkpt lat="40.18650079503781" lon="9.536107914834016"><ele>869.0</ele><time>2026-04-29T13:33:56.012Z</time></trkpt><trkpt lat="40.186583853599146" lon="9.536022719288745"><ele>869.0</ele><time>2026-04-29T13:33:57.012Z</time></trkpt><trkpt lat="40.18666614934346" lon="9.535938018732839"><ele>861.0</ele><time>2026-04-29T13:33:58.012Z</time></trkpt><trkpt lat="40.18676330584308" lon="9.535858473851357"><ele>853.0000000000001</ele><time>2026-04-29T13:33:59.012Z</time></trkpt><trkpt lat="40.186860736080206" lon="9.535781212879911"><ele>845.0</ele><time>2026-04-29T13:34:00.012Z</time></trkpt><trkpt lat="40.18695323939209" lon="9.535707614891948"><ele>837.0</ele><time>2026-04-29T13:34:01.012Z</time></trkpt><trkpt lat="40.1870398504091" lon="9.535641044694147"><ele>829.0</ele><time>2026-04-29T13:34:02.012Z</time></trkpt><trkpt lat="40.18711861492367" lon="9.535581916352864"><ele>828.9999999999999</ele><time>2026-04-29T13:34:03.012Z</time></trkpt><trkpt lat="40.18719027248755" lon="9.535550085977869"><ele>829.0</ele><time>2026-04-29T13:34:04.012Z</time></trkpt><trkpt lat="40.18725969501342" lon="9.535547144834112"><ele>829.0</ele><time>2026-04-29T13:34:05.012Z</time></trkpt><trkpt lat="40.18733637946526" lon="9.535581781978967"><ele>829.0</ele><time>2026-04-29T13:34:06.012Z</time></trkpt><trkpt lat="40.1874015132876" lon="9.535627719193442"><ele>828.9999999999999</ele><time>2026-04-29T13:34:07.012Z</time></trkpt><trkpt lat="40.187463326428855" lon="9.535701419150131"><ele>829.0</ele><time>2026-04-29T13:34:08.012Z</time></trkpt><trkpt lat="40.18754351614843" lon="9.535790318021201"><ele>829.4000000000001</ele><time>2026-04-29T13:34:09.012Z</time></trkpt><trkpt lat="40.18764020536324" lon="9.53587475661312"><ele>829.8</ele><time>2026-04-29T13:34:10.012Z</time></trkpt><trkpt lat="40.18773892841052" lon="9.535948821849052"><ele>830.2</ele><time>2026-04-29T13:34:11.012Z</time></trkpt><trkpt lat="40.18783867115471" lon="9.536011288054363"><ele>830.5999999999999</ele><time>2026-04-29T13:34:12.012Z</time></trkpt><trkpt lat="40.187918428929954" lon="9.536071279390608"><ele>831.0</ele><time>2026-04-29T13:34:13.012Z</time></trkpt><trkpt lat="40.1880066228869" lon="9.53610706532638"><ele>831.0</ele><time>2026-04-29T13:34:14.012Z</time></trkpt><trkpt lat="40.18808998299869" lon="9.536120722313406"><ele>831.0</ele><time>2026-04-29T13:34:15.012Z</time></trkpt><trkpt lat="40.18818358541759" lon="9.536115350810316"><ele>831.0</ele><time>2026-04-29T13:34:16.012Z</time></trkpt><trkpt lat="40.188280328890315" lon="9.536063071612695"><ele>831.0</ele><time>2026-04-29T13:34:17.012Z</time></trkpt><trkpt lat="40.18835939757725" lon="9.535959263550232"><ele>831.0</ele><time>2026-04-29T13:34:18.012Z</time></trkpt><trkpt lat="40.18844979848652" lon="9.5358750121842"><ele>829.8</ele><time>2026-04-29T13:34:19.012Z</time></trkpt><trkpt lat="40.18855130110879" lon="9.535800161557495"><ele>828.5999999999999</ele><time>2026-04-29T13:34:20.012Z</time></trkpt><trkpt lat="40.188658090422706" lon="9.53572919689794"><ele>827.4</ele><time>2026-04-29T13:34:21.012Z</time></trkpt><trkpt lat="40.18875660643128" lon="9.53567535032787"><ele>826.2</ele><time>2026-04-29T13:34:22.012Z</time></trkpt><trkpt lat="40.188850795051756" lon="9.53563622947867"><ele>825.0</ele><time>2026-04-29T13:34:23.012Z</time></trkpt><trkpt lat="40.18894088789687" lon="9.535608491693255"><ele>825.8</ele><time>2026-04-29T13:34:24.012Z</time></trkpt><trkpt lat="40.18902766882113" lon="9.53561158098247"><ele>826.6</ele><time>2026-04-29T13:34:25.012Z</time></trkpt><trkpt lat="40.18911617433702" lon="9.535644023572805"><ele>827.4000000000001</ele><time>2026-04-29T13:34:26.012Z</time></trkpt><trkpt lat="40.18921042762599" lon="9.53569918176003"><ele>828.2</ele><time>2026-04-29T13:34:27.012Z</time></trkpt><trkpt lat="40.189317873981565" lon="9.535750525585307"><ele>829.0</ele><time>2026-04-29T13:34:28.012Z</time></trkpt><trkpt lat="40.189425050674316" lon="9.535807388371854"><ele>829.0</ele><time>2026-04-29T13:34:29.012Z</time></trkpt><trkpt lat="40.18952942369256" lon="9.535858285188596"><ele>829.0</ele><time>2026-04-29T13:34:30.012Z</time></trkpt><trkpt lat="40.18962082104843" lon="9.535910388656953"><ele>829.0</ele><time>2026-04-29T13:34:31.012Z</time></trkpt><trkpt lat="40.18970952788666" lon="9.535962178146544"><ele>829.0</ele><time>2026-04-29T13:34:32.012Z</time></trkpt><trkpt lat="40.189775516670174" lon="9.53604580786058"><ele>829.0</ele><time>2026-04-29T13:34:33.012Z</time></trkpt><trkpt lat="40.18982977407142" lon="9.53614462348841"><ele>831.4000000000001</ele><time>2026-04-29T13:34:34.012Z</time></trkpt><trkpt lat="40.18987464700102" lon="9.536259773653953"><ele>833.8</ele><time>2026-04-29T13:34:35.012Z</time></trkpt><trkpt lat="40.189922717161735" lon="9.536373792842358"><ele>836.2</ele><time>2026-04-29T13:34:36.012Z</time></trkpt><trkpt lat="40.18998287413623" lon="9.536472793618717"><ele>838.5999999999999</ele><time>2026-04-29T13:34:37.012Z</time></trkpt><trkpt lat="40.19003890471402" lon="9.536551253442617"><ele>841.0</ele><time>2026-04-29T13:34:38.012Z</time></trkpt><trkpt lat="40.19009707281753" lon="9.536613081979633"><ele>840.9999999999999</ele><time>2026-04-29T13:34:39.012Z</time></trkpt><trkpt lat="40.19016166754773" lon="9.536640155987158"><ele>841.0</ele><time>2026-04-29T13:34:40.012Z</time></trkpt><trkpt lat="40.19022986988533" lon="9.536628765835655"><ele>841.0</ele><time>2026-04-29T13:34:41.012Z</time></trkpt><trkpt lat="40.190291802804964" lon="9.536569452498764"><ele>841.0</ele><time>2026-04-29T13:34:42.012Z</time></trkpt><trkpt lat="40.190373048442865" lon="9.536533376015692"><ele>840.9999999999999</ele><time>2026-04-29T13:34:43.012Z</time></trkpt><trkpt lat="40.19045881349359" lon="9.536501085618934"><ele>841.0</ele><time>2026-04-29T13:34:44.012Z</time></trkpt><trkpt lat="40.190550405456804" lon="9.536516273553842"><ele>841.0</ele><time>2026-04-29T13:34:45.012Z</time></trkpt><trkpt lat="40.1906491193179" lon="9.536502169513406"><ele>841.0</ele><time>2026-04-29T13:34:46.012Z</time></trkpt><trkpt lat="40.190735961432345" lon="9.536518658011733"><ele>841.0</ele><time>2026-04-29T13:34:47.012Z</time></trkpt><trkpt lat="40.19082075729531" lon="9.53647670703801"><ele>841.0</ele><time>2026-04-29T13:34:48.012Z</time></trkpt><trkpt lat="40.190888300979964" lon="9.536392477410697"><ele>841.0</ele><time>2026-04-29T13:34:49.012Z</time></trkpt><trkpt lat="40.19096838394803" lon="9.536318651785555"><ele>841.4</ele><time>2026-04-29T13:34:50.012Z</time></trkpt><trkpt lat="40.19105174493085" lon="9.536246348348067"><ele>841.8</ele><time>2026-04-29T13:34:51.012Z</time></trkpt><trkpt lat="40.19115045581102" lon="9.536183241191736"><ele>842.1999999999999</ele><time>2026-04-29T13:34:52.012Z</time></trkpt><trkpt lat="40.19125949265416" lon="9.536128208559534"><ele>842.5999999999999</ele><time>2026-04-29T13:34:53.012Z</time></trkpt><trkpt lat="40.1913584685222" lon="9.536075179921136"><ele>843.0</ele><time>2026-04-29T13:34:54.012Z</time></trkpt><trkpt lat="40.19146475366668" lon="9.536017888759021"><ele>836.75</ele><time>2026-04-29T13:34:55.012Z</time></trkpt><trkpt lat="40.19158008959981" lon="9.535951914563556"><ele>830.5</ele><time>2026-04-29T13:34:56.011Z</time></trkpt><trkpt lat="40.19169219572941" lon="9.53589262639736"><ele>824.25</ele><time>2026-04-29T13:34:57.011Z</time></trkpt><trkpt lat="40.191798349081544" lon="9.53583778183031"><ele>818.0</ele><time>2026-04-29T13:34:58.011Z</time></trkpt><trkpt lat="40.19190587734482" lon="9.535787002359884"><ele>818.0</ele><time>2026-04-29T13:34:59.011Z</time></trkpt><trkpt lat="40.192015606474605" lon="9.535737412010455"><ele>818.0</ele><time>2026-04-29T13:35:00.011Z</time></trkpt><trkpt lat="40.19212488241115" lon="9.535700095940921"><ele>818.0</ele><time>2026-04-29T13:35:01.011Z</time></trkpt><trkpt lat="40.19223665457207" lon="9.53567234747231"><ele>818.0</ele><time>2026-04-29T13:35:02.011Z</time></trkpt><trkpt lat="40.19234131441464" lon="9.535660656007787"><ele>818.0</ele><time>2026-04-29T13:35:03.011Z</time></trkpt><trkpt lat="40.19243602114921" lon="9.535648036933328"><ele>818.6666666666667</ele><time>2026-04-29T13:35:04.011Z</time></trkpt><trkpt lat="40.19251964358512" lon="9.535660986132246"><ele>819.3333333333334</ele><time>2026-04-29T13:35:05.011Z</time></trkpt><trkpt lat="40.192598279174945" lon="9.535689791904867"><ele>820.0</ele><time>2026-04-29T13:35:06.011Z</time></trkpt><trkpt lat="40.19265740299734" lon="9.535755892044879"><ele>820.6666666666667</ele><time>2026-04-29T13:35:07.011Z</time></trkpt><trkpt lat="40.192692979747555" lon="9.535831830489565"><ele>821.3333333333334</ele><time>2026-04-29T13:35:08.011Z</time></trkpt><trkpt lat="40.19271411011952" lon="9.535925236940159"><ele>822.0</ele><time>2026-04-29T13:35:09.011Z</time></trkpt><trkpt lat="40.192721914141785" lon="9.536030747656643"><ele>822.0</ele><time>2026-04-29T13:35:10.011Z</time></trkpt><trkpt lat="40.19272930565732" lon="9.536127515855975"><ele>822.0</ele><time>2026-04-29T13:35:11.011Z</time></trkpt><trkpt lat="40.19275155380852" lon="9.536215865951991"><ele>822.0</ele><time>2026-04-29T13:35:12.011Z</time></trkpt><trkpt lat="40.192797294383446" lon="9.536294971225153"><ele>822.0</ele><time>2026-04-29T13:35:13.011Z</time></trkpt><trkpt lat="40.192862067374385" lon="9.536372878849972"><ele>822.0</ele><time>2026-04-29T13:35:14.011Z</time></trkpt><trkpt lat="40.192931628081666" lon="9.536454089473846"><ele>822.0</ele><time>2026-04-29T13:35:15.011Z</time></trkpt><trkpt lat="40.19300956586266" lon="9.536542681043574"><ele>820.5</ele><time>2026-04-29T13:35:16.011Z</time></trkpt><trkpt lat="40.193095078191405" lon="9.53663573312123"><ele>819.0</ele><time>2026-04-29T13:35:17.011Z</time></trkpt><trkpt lat="40.193181481085674" lon="9.536729669409112"><ele>817.5</ele><time>2026-04-29T13:35:18.011Z</time></trkpt><trkpt lat="40.193276877600674" lon="9.536830594598175"><ele>816.0</ele><time>2026-04-29T13:35:19.011Z</time></trkpt><trkpt lat="40.193371932121096" lon="9.536937165346687"><ele>816.0</ele><time>2026-04-29T13:35:20.011Z</time></trkpt><trkpt lat="40.193461209505735" lon="9.537049368876438"><ele>816.0</ele><time>2026-04-29T13:35:21.011Z</time></trkpt><trkpt lat="40.19355431087111" lon="9.537142749317855"><ele>816.0</ele><time>2026-04-29T13:35:22.011Z</time></trkpt><trkpt lat="40.193631139649426" lon="9.537229891137166"><ele>816.0</ele><time>2026-04-29T13:35:23.011Z</time></trkpt><trkpt lat="40.19370448795751" lon="9.53730685158423"><ele>816.0</ele><time>2026-04-29T13:35:24.011Z</time></trkpt><trkpt lat="40.19377391832915" lon="9.53736112407989"><ele>821.1666666666666</ele><time>2026-04-29T13:35:25.011Z</time></trkpt><trkpt lat="40.19383682046565" lon="9.537406580153844"><ele>826.3333333333333</ele><time>2026-04-29T13:35:26.011Z</time></trkpt><trkpt lat="40.19390847702536" lon="9.537400523897695"><ele>831.5</ele><time>2026-04-29T13:35:27.011Z</time></trkpt><trkpt lat="40.19398330653136" lon="9.537369232694996"><ele>836.6666666666666</ele><time>2026-04-29T13:35:28.011Z</time></trkpt><trkpt lat="40.19406603357693" lon="9.5372885864405"><ele>841.8333333333333</ele><time>2026-04-29T13:35:29.011Z</time></trkpt><trkpt lat="40.194117388478894" lon="9.537188931452258"><ele>847.0</ele><time>2026-04-29T13:35:30.011Z</time></trkpt><trkpt lat="40.19418629470757" lon="9.537110808974349"><ele>847.0</ele><time>2026-04-29T13:35:31.011Z</time></trkpt><trkpt lat="40.194263178795424" lon="9.537058830241062"><ele>847.0</ele><time>2026-04-29T13:35:32.011Z</time></trkpt><trkpt lat="40.19434904633031" lon="9.537032117864422"><ele>847.0</ele><time>2026-04-29T13:35:33.011Z</time></trkpt><trkpt lat="40.194441342454255" lon="9.537034303712666"><ele>847.0</ele><time>2026-04-29T13:35:34.011Z</time></trkpt><trkpt lat="40.194544692182525" lon="9.537054506876274"><ele>847.0</ele><time>2026-04-29T13:35:35.011Z</time></trkpt><trkpt lat="40.19464918182906" lon="9.537084771487782"><ele>847.0</ele><time>2026-04-29T13:35:36.011Z</time></trkpt><trkpt lat="40.194744597185235" lon="9.537130861424362"><ele>847.0</ele><time>2026-04-29T13:35:37.011Z</time></trkpt><trkpt lat="40.1948239722335" lon="9.53719206078622"><ele>847.0</ele><time>2026-04-29T13:35:38.011Z</time></trkpt><trkpt lat="40.194891283601514" lon="9.53727874711916"><ele>847.0</ele><time>2026-04-29T13:35:39.011Z</time></trkpt><trkpt lat="40.19495274813383" lon="9.537381450404716"><ele>847.0</ele><time>2026-04-29T13:35:40.011Z</time></trkpt><trkpt lat="40.195013849369275" lon="9.537462417634758"><ele>845.9999999999999</ele><time>2026-04-29T13:35:41.011Z</time></trkpt><trkpt lat="40.19508131705015" lon="9.53750464418508"><ele>845.0</ele><time>2026-04-29T13:35:42.011Z</time></trkpt><trkpt lat="40.195152479123216" lon="9.53753704259851"><ele>844.0</ele><time>2026-04-29T13:35:43.011Z</time></trkpt><trkpt lat="40.19523614789596" lon="9.537520411061083"><ele>843.0</ele><time>2026-04-29T13:35:44.011Z</time></trkpt><trkpt lat="40.195316059448125" lon="9.537470723311465"><ele>841.9999999999999</ele><time>2026-04-29T13:35:45.011Z</time></trkpt><trkpt lat="40.195404285701436" lon="9.537407906421368"><ele>841.0</ele><time>2026-04-29T13:35:46.011Z</time></trkpt><trkpt lat="40.1955029892413" lon="9.537329121429881"><ele>841.0</ele><time>2026-04-29T13:35:47.011Z</time></trkpt><trkpt lat="40.19559067845383" lon="9.537244516412978"><ele>841.0</ele><time>2026-04-29T13:35:48.011Z</time></trkpt><trkpt lat="40.19566188902106" lon="9.53713154778957"><ele>841.0</ele><time>2026-04-29T13:35:49.011Z</time></trkpt><trkpt lat="40.195717689484454" lon="9.537000755873873"><ele>841.0</ele><time>2026-04-29T13:35:50.011Z</time></trkpt><trkpt lat="40.195786477644596" lon="9.536881028200819"><ele>836.5</ele><time>2026-04-29T13:35:51.011Z</time></trkpt><trkpt lat="40.195862945985034" lon="9.536777538729826"><ele>832.0</ele><time>2026-04-29T13:35:52.011Z</time></trkpt><trkpt lat="40.195940037841055" lon="9.536662672193124"><ele>827.5</ele><time>2026-04-29T13:35:53.011Z</time></trkpt><trkpt lat="40.19601442708232" lon="9.536552938684713"><ele>823.0</ele><time>2026-04-29T13:35:54.011Z</time></trkpt><trkpt lat="40.196103822988135" lon="9.536452977617644"><ele>823.0</ele><time>2026-04-29T13:35:55.011Z</time></trkpt><trkpt lat="40.19620624105941" lon="9.536373042119653"><ele>823.0</ele><time>2026-04-29T13:35:56.011Z</time></trkpt><trkpt lat="40.19631479898742" lon="9.536295977194698"><ele>823.0</ele><time>2026-04-29T13:35:57.011Z</time></trkpt><trkpt lat="40.1964340466741" lon="9.536232637612812"><ele>823.0</ele><time>2026-04-29T13:35:58.011Z</time></trkpt><trkpt lat="40.19655222428292" lon="9.53616692355282"><ele>820.5</ele><time>2026-04-29T13:35:59.011Z</time></trkpt><trkpt lat="40.19666966151379" lon="9.536109691922427"><ele>818.0</ele><time>2026-04-29T13:36:00.011Z</time></trkpt><trkpt lat="40.196777390237145" lon="9.536057601617"><ele>815.5</ele><time>2026-04-29T13:36:01.011Z</time></trkpt><trkpt lat="40.196881289011515" lon="9.536009800662715"><ele>813.0</ele><time>2026-04-29T13:36:02.011Z</time></trkpt><trkpt lat="40.19698424176489" lon="9.535977206469129"><ele>813.0</ele><time>2026-04-29T13:36:03.011Z</time></trkpt><trkpt lat="40.19707869730036" lon="9.535953730026066"><ele>813.0</ele><time>2026-04-29T13:36:04.011Z</time></trkpt><trkpt lat="40.197165329355464" lon="9.535957696722512"><ele>813.0</ele><time>2026-04-29T13:36:05.011Z</time></trkpt><trkpt lat="40.19724129028347" lon="9.535986501251795"><ele>813.0</ele><time>2026-04-29T13:36:06.011Z</time></trkpt><trkpt lat="40.19729543950366" lon="9.53603310226718"><ele>813.0</ele><time>2026-04-29T13:36:07.011Z</time></trkpt><trkpt lat="40.197326911564" lon="9.536197257084421"><ele>814.8</ele><time>2026-04-29T13:36:09.012Z</time></trkpt><trkpt lat="40.19732781922048" lon="9.536300120980753"><ele>816.5999999999999</ele><time>2026-04-29T13:36:10.012Z</time></trkpt><trkpt lat="40.1973235617641" lon="9.536415656817972"><ele>818.4000000000001</ele><time>2026-04-29T13:36:11.012Z</time></trkpt><trkpt lat="40.19732054053098" lon="9.536549649572317"><ele>820.2</ele><time>2026-04-29T13:36:12.012Z</time></trkpt><trkpt lat="40.19732643752441" lon="9.536691511321349"><ele>822.0</ele><time>2026-04-29T13:36:13.012Z</time></trkpt><trkpt lat="40.19733966692591" lon="9.536841264026979"><ele>822.0</ele><time>2026-04-29T13:36:14.012Z</time></trkpt><trkpt lat="40.19734996572319" lon="9.536994139667266"><ele>822.0</ele><time>2026-04-29T13:36:15.012Z</time></trkpt><trkpt lat="40.197357030054555" lon="9.537160132063939"><ele>822.0</ele><time>2026-04-29T13:36:16.012Z</time></trkpt><trkpt lat="40.19736804079519" lon="9.537322695673403"><ele>822.0</ele><time>2026-04-29T13:36:17.012Z</time></trkpt><trkpt lat="40.1973799597638" lon="9.537485968381802"><ele>821.8</ele><time>2026-04-29T13:36:18.012Z</time></trkpt><trkpt lat="40.19737195704867" lon="9.537644390929342"><ele>821.6</ele><time>2026-04-29T13:36:19.012Z</time></trkpt><trkpt lat="40.19736231485395" lon="9.53778046581848"><ele>821.4</ele><time>2026-04-29T13:36:20.012Z</time></trkpt><trkpt lat="40.197352536225196" lon="9.537914495384346"><ele>821.1999999999999</ele><time>2026-04-29T13:36:21.012Z</time></trkpt><trkpt lat="40.197342531975494" lon="9.538045547419896"><ele>821.0</ele><time>2026-04-29T13:36:22.012Z</time></trkpt><trkpt lat="40.19734081740152" lon="9.53816999234068"><ele>822.4</ele><time>2026-04-29T13:36:23.012Z</time></trkpt><trkpt lat="40.197369087812405" lon="9.538275884787875"><ele>823.8</ele><time>2026-04-29T13:36:24.012Z</time></trkpt><trkpt lat="40.19741576108179" lon="9.538372607300653"><ele>825.1999999999999</ele><time>2026-04-29T13:36:25.012Z</time></trkpt><trkpt lat="40.197482697614156" lon="9.538449224451348"><ele>826.5999999999999</ele><time>2026-04-29T13:36:26.012Z</time></trkpt><trkpt lat="40.19756434383834" lon="9.538512118378314"><ele>828.0</ele><time>2026-04-29T13:36:27.012Z</time></trkpt><trkpt lat="40.19766296645232" lon="9.538564353710445"><ele>828.0</ele><time>2026-04-29T13:36:28.012Z</time></trkpt><trkpt lat="40.1977581810118" lon="9.538613585723388"><ele>828.0</ele><time>2026-04-29T13:36:29.012Z</time></trkpt><trkpt lat="40.19784442341392" lon="9.5386854633655"><ele>828.0</ele><time>2026-04-29T13:36:30.012Z</time></trkpt><trkpt lat="40.19792144706642" lon="9.538773817914684"><ele>828.0</ele><time>2026-04-29T13:36:31.012Z</time></trkpt><trkpt lat="40.1979900007695" lon="9.53888134536735"><ele>828.0</ele><time>2026-04-29T13:36:32.012Z</time></trkpt><trkpt lat="40.19805627843787" lon="9.538998396325407"><ele>825.8</ele><time>2026-04-29T13:36:33.012Z</time></trkpt><trkpt lat="40.19812928558776" lon="9.539111081612717"><ele>823.5999999999999</ele><time>2026-04-29T13:36:34.012Z</time></trkpt><trkpt lat="40.19820354093063" lon="9.53921661025575"><ele>821.4000000000001</ele><time>2026-04-29T13:36:35.012Z</time></trkpt><trkpt lat="40.198283160393444" lon="9.539297459496977"><ele>819.2</ele><time>2026-04-29T13:36:36.012Z</time></trkpt><trkpt lat="40.198360354321686" lon="9.539350385825417"><ele>817.0</ele><time>2026-04-29T13:36:37.012Z</time></trkpt><trkpt lat="40.198447785680585" lon="9.539374397002739"><ele>816.9999999999999</ele><time>2026-04-29T13:36:38.012Z</time></trkpt><trkpt lat="40.19852773952292" lon="9.539359512888442"><ele>817.0</ele><time>2026-04-29T13:36:39.012Z</time></trkpt><trkpt lat="40.198600771500466" lon="9.539327613424039"><ele>817.0</ele><time>2026-04-29T13:36:40.012Z</time></trkpt><trkpt lat="40.1986916670429" lon="9.539283595608858"><ele>817.0</ele><time>2026-04-29T13:36:41.012Z</time></trkpt><trkpt lat="40.198779706746684" lon="9.539246310558214"><ele>816.9999999999999</ele><time>2026-04-29T13:36:42.012Z</time></trkpt><trkpt lat="40.198872666954145" lon="9.539240594903392"><ele>817.0</ele><time>2026-04-29T13:36:43.012Z</time></trkpt><trkpt lat="40.19898634574021" lon="9.539257148945389"><ele>813.5</ele><time>2026-04-29T13:36:44.012Z</time></trkpt><trkpt lat="40.199097271584975" lon="9.539295518437644"><ele>810.0</ele><time>2026-04-29T13:36:45.012Z</time></trkpt><trkpt lat="40.19920144757466" lon="9.539359396918304"><ele>806.5</ele><time>2026-04-29T13:36:46.012Z</time></trkpt><trkpt lat="40.19929908912576" lon="9.539454171072663"><ele>803.0</ele><time>2026-04-29T13:36:47.012Z</time></trkpt><trkpt lat="40.19937766708266" lon="9.539534756606322"><ele>807.8</ele><time>2026-04-29T13:36:48.012Z</time></trkpt><trkpt lat="40.19942401653031" lon="9.53961586311865"><ele>812.5999999999999</ele><time>2026-04-29T13:36:49.012Z</time></trkpt><trkpt lat="40.199426237460536" lon="9.539739164999702"><ele>817.4000000000001</ele><time>2026-04-29T13:36:51.012Z</time></trkpt><trkpt lat="40.19941803918498" lon="9.539848217434809"><ele>822.2</ele><time>2026-04-29T13:36:52.012Z</time></trkpt><trkpt lat="40.19938511607342" lon="9.53996153379481"><ele>827.0</ele><time>2026-04-29T13:36:53.012Z</time></trkpt><trkpt lat="40.19936777832819" lon="9.540094909786093"><ele>827.0</ele><time>2026-04-29T13:36:54.012Z</time></trkpt><trkpt lat="40.1993872511097" lon="9.540239059050197"><ele>827.0</ele><time>2026-04-29T13:36:55.012Z</time></trkpt><trkpt lat="40.199452123099725" lon="9.540365838642613"><ele>827.0</ele><time>2026-04-29T13:36:56.012Z</time></trkpt><trkpt lat="40.19952493196325" lon="9.540444218990439"><ele>827.0</ele><time>2026-04-29T13:36:57.012Z</time></trkpt><trkpt lat="40.19962254296543" lon="9.540472985716926"><ele>827.0</ele><time>2026-04-29T13:36:58.012Z</time></trkpt><trkpt lat="40.19970125558502" lon="9.54051239334397"><ele>825.2</ele><time>2026-04-29T13:37:00.012Z</time></trkpt><trkpt lat="40.19977984434109" lon="9.540564569110591"><ele>823.4000000000001</ele><time>2026-04-29T13:37:01.012Z</time></trkpt><trkpt lat="40.19985694230298" lon="9.540637126416067"><ele>821.5999999999999</ele><time>2026-04-29T13:37:02.012Z</time></trkpt><trkpt lat="40.19993209272702" lon="9.540734787838677"><ele>819.8</ele><time>2026-04-29T13:37:03.011Z</time></trkpt><trkpt lat="40.20001109571617" lon="9.540825622023469"><ele>818.0</ele><time>2026-04-29T13:37:04.011Z</time></trkpt><trkpt lat="40.20009918908231" lon="9.54089577174328"><ele>818.0</ele><time>2026-04-29T13:37:05.011Z</time></trkpt><trkpt lat="40.20019486727887" lon="9.540928552165624"><ele>818.0</ele><time>2026-04-29T13:37:06.012Z</time></trkpt><trkpt lat="40.20029576296222" lon="9.540938315341183"><ele>818.0</ele><time>2026-04-29T13:37:07.012Z</time></trkpt><trkpt lat="40.200404738606906" lon="9.540911729321454"><ele>818.0</ele><time>2026-04-29T13:37:08.011Z</time></trkpt><trkpt lat="40.20050277948888" lon="9.540864693344481"><ele>818.0</ele><time>2026-04-29T13:37:09.012Z</time></trkpt><trkpt lat="40.200595951862645" lon="9.54080941432789"><ele>816.5000000000001</ele><time>2026-04-29T13:37:10.012Z</time></trkpt><trkpt lat="40.20069561721134" lon="9.540768591908249"><ele>815.0</ele><time>2026-04-29T13:37:11.012Z</time></trkpt><trkpt lat="40.200777370188284" lon="9.540725513755929"><ele>813.5</ele><time>2026-04-29T13:37:12.011Z</time></trkpt><trkpt lat="40.20085445091583" lon="9.54071143633334"><ele>812.0</ele><time>2026-04-29T13:37:13.011Z</time></trkpt><trkpt lat="40.20093102102987" lon="9.54070525443412"><ele>810.5000000000001</ele><time>2026-04-29T13:37:14.011Z</time></trkpt><trkpt lat="40.20100579650913" lon="9.540752214271508"><ele>809.0</ele><time>2026-04-29T13:37:15.011Z</time></trkpt><trkpt lat="40.201086214988024" lon="9.540833808700494"><ele>809.0</ele><time>2026-04-29T13:37:16.011Z</time></trkpt><trkpt lat="40.20116211730469" lon="9.540920701113995"><ele>809.0</ele><time>2026-04-29T13:37:17.011Z</time></trkpt><trkpt lat="40.201216112913855" lon="9.541021900473007"><ele>809.0</ele><time>2026-04-29T13:37:18.011Z</time></trkpt><trkpt lat="40.20126123334347" lon="9.54113352242721"><ele>809.0</ele><time>2026-04-29T13:37:19.011Z</time></trkpt><trkpt lat="40.201302052034755" lon="9.54125650368903"><ele>809.0</ele><time>2026-04-29T13:37:20.011Z</time></trkpt><trkpt lat="40.201366404849885" lon="9.541368427592094"><ele>810.0</ele><time>2026-04-29T13:37:21.012Z</time></trkpt><trkpt lat="40.201448007418634" lon="9.541461771058852"><ele>811.0</ele><time>2026-04-29T13:37:22.012Z</time></trkpt><trkpt lat="40.20154296447027" lon="9.541536880330016"><ele>812.0</ele><time>2026-04-29T13:37:23.012Z</time></trkpt><trkpt lat="40.20163692561481" lon="9.54159402089584"><ele>813.0</ele><time>2026-04-29T13:37:24.012Z</time></trkpt><trkpt lat="40.20175342190284" lon="9.541630059475962"><ele>814.0</ele><time>2026-04-29T13:37:25.012Z</time></trkpt><trkpt lat="40.20186659152803" lon="9.541654533687057"><ele>814.0</ele><time>2026-04-29T13:37:26.012Z</time></trkpt><trkpt lat="40.20199091011134" lon="9.541679634982891"><ele>814.0</ele><time>2026-04-29T13:37:27.012Z</time></trkpt><trkpt lat="40.20212091926307" lon="9.541702128362383"><ele>814.0</ele><time>2026-04-29T13:37:28.012Z</time></trkpt><trkpt lat="40.202266216109415" lon="9.54171056486724"><ele>814.0</ele><time>2026-04-29T13:37:29.012Z</time></trkpt><trkpt lat="40.20239715873372" lon="9.541717456855146"><ele>810.0</ele><time>2026-04-29T13:37:30.012Z</time></trkpt><trkpt lat="40.20250953918224" lon="9.541719470015892"><ele>806.0</ele><time>2026-04-29T13:37:31.012Z</time></trkpt><trkpt lat="40.20262089421264" lon="9.541757199615686"><ele>802.0</ele><time>2026-04-29T13:37:32.012Z</time></trkpt><trkpt lat="40.202723683798894" lon="9.541817076875791"><ele>798.0</ele><time>2026-04-29T13:37:33.012Z</time></trkpt><trkpt lat="40.20279486873951" lon="9.541908827423438"><ele>794.0</ele><time>2026-04-29T13:37:34.012Z</time></trkpt><trkpt lat="40.20283154100114" lon="9.542025380588312"><ele>802.25</ele><time>2026-04-29T13:37:35.012Z</time></trkpt><trkpt lat="40.202874572478514" lon="9.542150646491931"><ele>810.5</ele><time>2026-04-29T13:37:36.012Z</time></trkpt><trkpt lat="40.20294701204709" lon="9.542323872224975"><ele>818.75</ele><time>2026-04-29T13:37:37.012Z</time></trkpt><trkpt lat="40.20302639321098" lon="9.542427805024623"><ele>827.0</ele><time>2026-04-29T13:37:38.012Z</time></trkpt><trkpt lat="40.20310510923459" lon="9.542527558917413"><ele>824.6</ele><time>2026-04-29T13:37:39.012Z</time></trkpt><trkpt lat="40.20317094596187" lon="9.542610699887666"><ele>822.2</ele><time>2026-04-29T13:37:40.012Z</time></trkpt><trkpt lat="40.20323871236503" lon="9.542697317410967"><ele>819.8</ele><time>2026-04-29T13:37:41.012Z</time></trkpt><trkpt lat="40.20332567517501" lon="9.542807869206449"><ele>817.4</ele><time>2026-04-29T13:37:42.012Z</time></trkpt><trkpt lat="40.20341703774045" lon="9.542923513968985"><ele>815.0</ele><time>2026-04-29T13:37:43.012Z</time></trkpt><trkpt lat="40.20350785093161" lon="9.543035538441124"><ele>815.0</ele><time>2026-04-29T13:37:44.012Z</time></trkpt><trkpt lat="40.20359487368134" lon="9.543140464082217"><ele>815.0</ele><time>2026-04-29T13:37:45.012Z</time></trkpt><trkpt lat="40.20369451797283" lon="9.543231553784896"><ele>815.0</ele><time>2026-04-29T13:37:46.012Z</time></trkpt><trkpt lat="40.20380163728235" lon="9.543267913477527"><ele>815.0</ele><time>2026-04-29T13:37:47.012Z</time></trkpt><trkpt lat="40.20390304177872" lon="9.54332836404049"><ele>805.75</ele><time>2026-04-29T13:37:48.012Z</time></trkpt><trkpt lat="40.204005359656556" lon="9.543389330983839"><ele>796.5</ele><time>2026-04-29T13:37:49.012Z</time></trkpt><trkpt lat="40.20410650217369" lon="9.543454765810365"><ele>787.25</ele><time>2026-04-29T13:37:50.012Z</time></trkpt><trkpt lat="40.20421567991344" lon="9.543545123659301"><ele>778.0</ele><time>2026-04-29T13:37:51.012Z</time></trkpt><trkpt lat="40.204337742944126" lon="9.543677060435476"><ele>790.6666666666666</ele><time>2026-04-29T13:37:52.012Z</time></trkpt><trkpt lat="40.2044693466116" lon="9.543805039127342"><ele>803.3333333333333</ele><time>2026-04-29T13:37:53.012Z</time></trkpt><trkpt lat="40.20461707167996" lon="9.543919158817406"><ele>816.0</ele><time>2026-04-29T13:37:54.012Z</time></trkpt><trkpt lat="40.204786555144224" lon="9.543972875627963"><ele>816.0</ele><time>2026-04-29T13:37:55.012Z</time></trkpt><trkpt lat="40.20493119692582" lon="9.544064696323664"><ele>816.0</ele><time>2026-04-29T13:37:56.012Z</time></trkpt><trkpt lat="40.20479549674989" lon="9.54391048829238"><ele>816.0</ele><time>2026-04-29T13:37:57.012Z</time></trkpt><trkpt lat="40.2049020546782" lon="9.543943862908918"><ele>810.0</ele><time>2026-04-29T13:37:58.012Z</time></trkpt><trkpt lat="40.20499432448961" lon="9.544009360670357"><ele>804.0</ele><time>2026-04-29T13:37:59.012Z</time></trkpt><trkpt lat="40.205079455077154" lon="9.54409668911318"><ele>798.0</ele><time>2026-04-29T13:38:00.012Z</time></trkpt><trkpt lat="40.20516004198456" lon="9.544214317827839"><ele>792.0</ele><time>2026-04-29T13:38:01.012Z</time></trkpt><trkpt lat="40.205249421300834" lon="9.544314057287767"><ele>792.0</ele><time>2026-04-29T13:38:02.012Z</time></trkpt><trkpt lat="40.20534827448446" lon="9.54438713473539"><ele>792.0</ele><time>2026-04-29T13:38:03.012Z</time></trkpt><trkpt lat="40.20545024479803" lon="9.544445354685186"><ele>792.0</ele><time>2026-04-29T13:38:04.012Z</time></trkpt><trkpt lat="40.2055625106761" lon="9.544471052752039"><ele>792.0</ele><time>2026-04-29T13:38:05.012Z</time></trkpt><trkpt lat="40.205690092007075" lon="9.544464279239843"><ele>786.25</ele><time>2026-04-29T13:38:06.012Z</time></trkpt><trkpt lat="40.205819356640475" lon="9.544453141663768"><ele>780.5</ele><time>2026-04-29T13:38:07.012Z</time></trkpt><trkpt lat="40.205955287156286" lon="9.544424481290081"><ele>774.75</ele><time>2026-04-29T13:38:08.012Z</time></trkpt><trkpt lat="40.20608687503545" lon="9.544406721054326"><ele>769.0</ele><time>2026-04-29T13:38:09.012Z</time></trkpt><trkpt lat="40.206214081471025" lon="9.544392362329848"><ele>769.0</ele><time>2026-04-29T13:38:10.012Z</time></trkpt><trkpt lat="40.20633681651118" lon="9.54439660754622"><ele>769.0</ele><time>2026-04-29T13:38:11.012Z</time></trkpt><trkpt lat="40.206461182783045" lon="9.54444011749846"><ele>769.0</ele><time>2026-04-29T13:38:12.012Z</time></trkpt><trkpt lat="40.20659141898208" lon="9.544483609185471"><ele>769.0</ele><time>2026-04-29T13:38:13.012Z</time></trkpt><trkpt lat="40.20673082364137" lon="9.544532585403916"><ele>776.75</ele><time>2026-04-29T13:38:14.012Z</time></trkpt><trkpt lat="40.20686725543122" lon="9.544577216341642"><ele>784.5</ele><time>2026-04-29T13:38:15.012Z</time></trkpt><trkpt lat="40.20700819846633" lon="9.544622879453081"><ele>792.25</ele><time>2026-04-29T13:38:16.012Z</time></trkpt><trkpt lat="40.20714450769338" lon="9.544668420222298"><ele>800.0</ele><time>2026-04-29T13:38:17.012Z</time></trkpt><trkpt lat="40.207277029668944" lon="9.544707852943617"><ele>795.75</ele><time>2026-04-29T13:38:18.012Z</time></trkpt><trkpt lat="40.20740259366185" lon="9.54474403470246"><ele>791.5</ele><time>2026-04-29T13:38:19.012Z</time></trkpt><trkpt lat="40.20753754258003" lon="9.544755486151633"><ele>787.25</ele><time>2026-04-29T13:38:20.012Z</time></trkpt><trkpt lat="40.207663499991455" lon="9.544787262505983"><ele>783.0</ele><time>2026-04-29T13:38:21.012Z</time></trkpt><trkpt lat="40.20778743931135" lon="9.544828367452439"><ele>783.0</ele><time>2026-04-29T13:38:22.012Z</time></trkpt><trkpt lat="40.207907612007325" lon="9.544874995090595"><ele>783.0</ele><time>2026-04-29T13:38:23.012Z</time></trkpt><trkpt lat="40.208023587569784" lon="9.544924957827844"><ele>783.0</ele><time>2026-04-29T13:38:24.012Z</time></trkpt><trkpt lat="40.20813469509446" lon="9.544970118667266"><ele>783.0</ele><time>2026-04-29T13:38:25.012Z</time></trkpt><trkpt lat="40.208229803687736" lon="9.54501563287652"><ele>783.0</ele><time>2026-04-29T13:38:26.012Z</time></trkpt><trkpt lat="40.20831580097458" lon="9.54507247878979"><ele>783.0</ele><time>2026-04-29T13:38:27.012Z</time></trkpt><trkpt lat="40.20838113793209" lon="9.545155536513464"><ele>783.0</ele><time>2026-04-29T13:38:28.012Z</time></trkpt><trkpt lat="40.20844983625324" lon="9.545258992545984"><ele>783.0</ele><time>2026-04-29T13:38:29.012Z</time></trkpt><trkpt lat="40.20851397968244" lon="9.545395272669166"><ele>783.0</ele><time>2026-04-29T13:38:30.012Z</time></trkpt><trkpt lat="40.208584251093484" lon="9.545545538364246"><ele>783.0</ele><time>2026-04-29T13:38:31.012Z</time></trkpt><trkpt lat="40.208664526662155" lon="9.545698862924828"><ele>783.0</ele><time>2026-04-29T13:38:32.012Z</time></trkpt><trkpt lat="40.20874251103765" lon="9.54586653520684"><ele>783.0</ele><time>2026-04-29T13:38:33.012Z</time></trkpt><trkpt lat="40.20882963926696" lon="9.546020789179849"><ele>783.0</ele><time>2026-04-29T13:38:34.012Z</time></trkpt><trkpt lat="40.20891824164289" lon="9.546189186557314"><ele>775.75</ele><time>2026-04-29T13:38:35.012Z</time></trkpt><trkpt lat="40.20899755577446" lon="9.54635409974056"><ele>768.5</ele><time>2026-04-29T13:38:36.012Z</time></trkpt><trkpt lat="40.209081839069455" lon="9.546510772604567"><ele>761.25</ele><time>2026-04-29T13:38:37.012Z</time></trkpt><trkpt lat="40.20915520221289" lon="9.546667103637963"><ele>754.0</ele><time>2026-04-29T13:38:38.012Z</time></trkpt><trkpt lat="40.209232435009326" lon="9.54682136219448"><ele>754.0</ele><time>2026-04-29T13:38:39.012Z</time></trkpt><trkpt lat="40.20932188549047" lon="9.546958881990836"><ele>754.0</ele><time>2026-04-29T13:38:40.012Z</time></trkpt><trkpt lat="40.209412927676134" lon="9.547101821672808"><ele>754.0</ele><time>2026-04-29T13:38:41.012Z</time></trkpt><trkpt lat="40.209515527472725" lon="9.547226601553797"><ele>754.0</ele><time>2026-04-29T13:38:42.012Z</time></trkpt><trkpt lat="40.20962253394383" lon="9.547346447201672"><ele>750.75</ele><time>2026-04-29T13:38:43.012Z</time></trkpt><trkpt lat="40.20972652872407" lon="9.54745503363262"><ele>747.5</ele><time>2026-04-29T13:38:44.012Z</time></trkpt><trkpt lat="40.20982970074153" lon="9.54756423201264"><ele>744.25</ele><time>2026-04-29T13:38:45.012Z</time></trkpt><trkpt lat="40.2099218312065" lon="9.547686035066844"><ele>741.0</ele><time>2026-04-29T13:38:46.012Z</time></trkpt><trkpt lat="40.21000450855632" lon="9.547821376418089"><ele>747.25</ele><time>2026-04-29T13:38:47.012Z</time></trkpt><trkpt lat="40.21007828135915" lon="9.547958968901064"><ele>753.5</ele><time>2026-04-29T13:38:48.012Z</time></trkpt><trkpt lat="40.21015843563163" lon="9.548078700974122"><ele>759.75</ele><time>2026-04-29T13:38:49.012Z</time></trkpt><trkpt lat="40.21024944405328" lon="9.548186942634578"><ele>766.0</ele><time>2026-04-29T13:38:50.012Z</time></trkpt><trkpt lat="40.21035532744651" lon="9.548287855911886"><ele>766.0</ele><time>2026-04-29T13:38:51.012Z</time></trkpt><trkpt lat="40.210460255641415" lon="9.548391843453139"><ele>766.0</ele><time>2026-04-29T13:38:52.012Z</time></trkpt><trkpt lat="40.210589881534446" lon="9.54847809009107"><ele>766.0</ele><time>2026-04-29T13:38:53.013Z</time></trkpt><trkpt lat="40.21071128410511" lon="9.54855703269154"><ele>766.0</ele><time>2026-04-29T13:38:54.013Z</time></trkpt><trkpt lat="40.210832543242105" lon="9.548641453373554"><ele>766.0</ele><time>2026-04-29T13:38:55.013Z</time></trkpt><trkpt lat="40.21094892147817" lon="9.548726846997456"><ele>766.0</ele><time>2026-04-29T13:38:56.013Z</time></trkpt><trkpt lat="40.211059993390215" lon="9.54882290463039"><ele>766.0</ele><time>2026-04-29T13:38:57.013Z</time></trkpt><trkpt lat="40.21117801701448" lon="9.548926758252273"><ele>766.0</ele><time>2026-04-29T13:38:58.013Z</time></trkpt><trkpt lat="40.21127246854963" lon="9.549052508631494"><ele>766.0</ele><time>2026-04-29T13:38:59.013Z</time></trkpt><trkpt lat="40.21136461614087" lon="9.5491933693586"><ele>766.0</ele><time>2026-04-29T13:39:00.013Z</time></trkpt><trkpt lat="40.21146515890208" lon="9.549334815799956"><ele>766.0</ele><time>2026-04-29T13:39:01.013Z</time></trkpt><trkpt lat="40.21155532571608" lon="9.549477600560515"><ele>766.0</ele><time>2026-04-29T13:39:02.013Z</time></trkpt><trkpt lat="40.211642400569126" lon="9.549616643354739"><ele>763.0</ele><time>2026-04-29T13:39:03.013Z</time></trkpt><trkpt lat="40.211727087975554" lon="9.54974912398373"><ele>760.0</ele><time>2026-04-29T13:39:04.013Z</time></trkpt><trkpt lat="40.21182159905829" lon="9.54986812428112"><ele>757.0</ele><time>2026-04-29T13:39:05.013Z</time></trkpt><trkpt lat="40.21192768367292" lon="9.549979386231092"><ele>754.0</ele><time>2026-04-29T13:39:06.013Z</time></trkpt><trkpt lat="40.21203981581656" lon="9.550094055589003"><ele>754.0</ele><time>2026-04-29T13:39:07.013Z</time></trkpt><trkpt lat="40.21214890021425" lon="9.55020873947506"><ele>754.0</ele><time>2026-04-29T13:39:08.011Z</time></trkpt><trkpt lat="40.21226240876651" lon="9.550337122533625"><ele>754.0</ele><time>2026-04-29T13:39:09.011Z</time></trkpt><trkpt lat="40.21236679705307" lon="9.550477263560854"><ele>754.0</ele><time>2026-04-29T13:39:10.011Z</time></trkpt><trkpt lat="40.212479181284614" lon="9.550602154653483"><ele>749.25</ele><time>2026-04-29T13:39:11.012Z</time></trkpt><trkpt lat="40.21257925633903" lon="9.550728491612556"><ele>744.5</ele><time>2026-04-29T13:39:12.012Z</time></trkpt><trkpt lat="40.212682614518435" lon="9.550841632446655"><ele>739.75</ele><time>2026-04-29T13:39:13.012Z</time></trkpt><trkpt lat="40.21280123399939" lon="9.550946427856308"><ele>735.0</ele><time>2026-04-29T13:39:14.012Z</time></trkpt><trkpt lat="40.21290665311702" lon="9.551042726893197"><ele>735.0</ele><time>2026-04-29T13:39:15.011Z</time></trkpt><trkpt lat="40.21300544606608" lon="9.551126770360867"><ele>735.0</ele><time>2026-04-29T13:39:16.011Z</time></trkpt><trkpt lat="40.213094045322705" lon="9.551184306358461"><ele>735.0</ele><time>2026-04-29T13:39:17.012Z</time></trkpt><trkpt lat="40.21315926311323" lon="9.55122966948081"><ele>735.0</ele><time>2026-04-29T13:39:18.011Z</time></trkpt><trkpt lat="40.21322183802228" lon="9.551256905999027"><ele>735.0</ele><time>2026-04-29T13:39:43.012Z</time></trkpt><trkpt lat="40.21335213260719" lon="9.551286223569846"><ele>736.6666666666666</ele><time>2026-04-29T13:43:07.013Z</time></trkpt><trkpt lat="40.21341641818349" lon="9.551335534765022"><ele>738.3333333333334</ele><time>2026-04-29T13:43:08.013Z</time></trkpt><trkpt lat="40.21347890891799" lon="9.551382533041005"><ele>740.0</ele><time>2026-04-29T13:43:09.013Z</time></trkpt><trkpt lat="40.213545746233905" lon="9.551428992817677"><ele>741.6666666666667</ele><time>2026-04-29T13:43:10.013Z</time></trkpt><trkpt lat="40.213618194485775" lon="9.55147335082991"><ele>743.3333333333334</ele><time>2026-04-29T13:43:11.013Z</time></trkpt><trkpt lat="40.21369194196241" lon="9.551542228190547"><ele>745.0</ele><time>2026-04-29T13:43:12.013Z</time></trkpt><trkpt lat="40.213791909107314" lon="9.551578731714926"><ele>745.0</ele><time>2026-04-29T13:43:13.013Z</time></trkpt><trkpt lat="40.21388135518242" lon="9.551638500915672"><ele>745.0</ele><time>2026-04-29T13:43:14.013Z</time></trkpt><trkpt lat="40.21397361114583" lon="9.551684157724381"><ele>745.0</ele><time>2026-04-29T13:43:15.013Z</time></trkpt><trkpt lat="40.21406938942013" lon="9.551751071889969"><ele>745.0</ele><time>2026-04-29T13:43:16.013Z</time></trkpt><trkpt lat="40.21417872837839" lon="9.55179092125456"><ele>745.0</ele><time>2026-04-29T13:43:17.013Z</time></trkpt><trkpt lat="40.214290955961005" lon="9.551810171370699"><ele>737.5</ele><time>2026-04-29T13:43:18.013Z</time></trkpt><trkpt lat="40.2144101110204" lon="9.551820406112464"><ele>730.0</ele><time>2026-04-29T13:43:19.013Z</time></trkpt><trkpt lat="40.214528112522515" lon="9.55182334588406"><ele>722.5</ele><time>2026-04-29T13:43:20.013Z</time></trkpt><trkpt lat="40.21464738517964" lon="9.55180751474003"><ele>715.0</ele><time>2026-04-29T13:43:21.013Z</time></trkpt><trkpt lat="40.21476365363103" lon="9.551801558244534"><ele>712.4</ele><time>2026-04-29T13:43:22.012Z</time></trkpt><trkpt lat="40.21486990494071" lon="9.551800448609974"><ele>709.8</ele><time>2026-04-29T13:43:23.012Z</time></trkpt><trkpt lat="40.21497834113114" lon="9.551792298951465"><ele>707.2</ele><time>2026-04-29T13:43:24.012Z</time></trkpt><trkpt lat="40.2150739954618" lon="9.551802401735056"><ele>704.6</ele><time>2026-04-29T13:43:25.013Z</time></trkpt><trkpt lat="40.21516597319635" lon="9.55186583901857"><ele>702.0</ele><time>2026-04-29T13:43:26.013Z</time></trkpt><trkpt lat="40.21526648064851" lon="9.55193768459759"><ele>702.0</ele><time>2026-04-29T13:43:27.013Z</time></trkpt><trkpt lat="40.215362734024446" lon="9.552005732612669"><ele>702.0</ele><time>2026-04-29T13:43:28.012Z</time></trkpt><trkpt lat="40.21545553853068" lon="9.552065066278635"><ele>702.0</ele><time>2026-04-29T13:43:29.013Z</time></trkpt><trkpt lat="40.21555572460693" lon="9.55211177192605"><ele>702.0</ele><time>2026-04-29T13:43:30.013Z</time></trkpt><trkpt lat="40.215671402646095" lon="9.552149060657978"><ele>702.0</ele><time>2026-04-29T13:43:31.013Z</time></trkpt><trkpt lat="40.2157871348366" lon="9.552159090507411"><ele>708.5</ele><time>2026-04-29T13:43:32.012Z</time></trkpt><trkpt lat="40.21591539201357" lon="9.55219608187708"><ele>715.0</ele><time>2026-04-29T13:43:33.012Z</time></trkpt><trkpt lat="40.21603477366503" lon="9.55223152745093"><ele>721.5</ele><time>2026-04-29T13:43:34.013Z</time></trkpt><trkpt lat="40.21615106324386" lon="9.552243485853353"><ele>728.0</ele><time>2026-04-29T13:43:35.013Z</time></trkpt><trkpt lat="40.21627431518346" lon="9.552256651632824"><ele>728.0</ele><time>2026-04-29T13:43:36.013Z</time></trkpt><trkpt lat="40.21639727490056" lon="9.55223851464987"><ele>728.0</ele><time>2026-04-29T13:43:37.013Z</time></trkpt><trkpt lat="40.216531301286025" lon="9.552219069518278"><ele>728.0</ele><time>2026-04-29T13:43:38.013Z</time></trkpt><trkpt lat="40.21666963908071" lon="9.552215315383481"><ele>728.0</ele><time>2026-04-29T13:43:39.013Z</time></trkpt><trkpt lat="40.216798209603496" lon="9.552236887816411"><ele>724.0</ele><time>2026-04-29T13:43:40.013Z</time></trkpt><trkpt lat="40.21692046107427" lon="9.552267072214523"><ele>720.0</ele><time>2026-04-29T13:43:41.013Z</time></trkpt><trkpt lat="40.21703329390586" lon="9.552301655723932"><ele>716.0</ele><time>2026-04-29T13:43:42.013Z</time></trkpt><trkpt lat="40.21714221356335" lon="9.552355818838977"><ele>712.0</ele><time>2026-04-29T13:43:43.013Z</time></trkpt><trkpt lat="40.21723805264597" lon="9.552424735009648"><ele>708.0</ele><time>2026-04-29T13:43:44.013Z</time></trkpt><trkpt lat="40.21732892460664" lon="9.552516637737302"><ele>704.0</ele><time>2026-04-29T13:43:45.013Z</time></trkpt><trkpt lat="40.21742901734419" lon="9.552601724246195"><ele>700.0</ele><time>2026-04-29T13:43:46.013Z</time></trkpt><trkpt lat="40.21751550295152" lon="9.55271461364639"><ele>696.0</ele><time>2026-04-29T13:43:47.013Z</time></trkpt><trkpt lat="40.217625425255584" lon="9.552796702329466"><ele>696.0</ele><time>2026-04-29T13:43:48.013Z</time></trkpt><trkpt lat="40.21773776720336" lon="9.552869862850145"><ele>696.0</ele><time>2026-04-29T13:43:49.013Z</time></trkpt><trkpt lat="40.217857835787115" lon="9.552925940383947"><ele>696.0</ele><time>2026-04-29T13:43:50.013Z</time></trkpt><trkpt lat="40.21796971668291" lon="9.552972269947178"><ele>696.0</ele><time>2026-04-29T13:43:51.013Z</time></trkpt><trkpt lat="40.21804584323257" lon="9.553011014700441"><ele>700.5</ele><time>2026-04-29T13:43:52.013Z</time></trkpt><trkpt lat="40.218167007242045" lon="9.553031962318123"><ele>705.0</ele><time>2026-04-29T13:43:53.013Z</time></trkpt><trkpt lat="40.218281502441805" lon="9.553048073851118"><ele>709.5</ele><time>2026-04-29T13:43:54.013Z</time></trkpt><trkpt lat="40.21841701551366" lon="9.5530822585803"><ele>714.0</ele><time>2026-04-29T13:43:55.013Z</time></trkpt><trkpt lat="40.21858272876211" lon="9.553155865054523"><ele>714.0</ele><time>2026-04-29T13:43:56.013Z</time></trkpt><trkpt lat="40.218647506425164" lon="9.553181623515329"><ele>714.0</ele><time>2026-04-29T13:43:58.013Z</time></trkpt><trkpt lat="40.21874742869569" lon="9.553259419231292"><ele>714.0</ele><time>2026-04-29T13:43:59.013Z</time></trkpt><trkpt lat="40.21884434095136" lon="9.553303424283632"><ele>714.0</ele><time>2026-04-29T13:44:00.013Z</time></trkpt><trkpt lat="40.21892430411968" lon="9.55334686529657"><ele>714.0</ele><time>2026-04-29T13:44:01.013Z</time></trkpt><trkpt lat="40.21901026031811" lon="9.553352753040725"><ele>708.6666666666666</ele><time>2026-04-29T13:44:02.013Z</time></trkpt><trkpt lat="40.21910028985699" lon="9.553342737401776"><ele>703.3333333333334</ele><time>2026-04-29T13:44:03.013Z</time></trkpt><trkpt lat="40.219191301817034" lon="9.553341798893266"><ele>698.0</ele><time>2026-04-29T13:44:04.013Z</time></trkpt><trkpt lat="40.21927110098262" lon="9.553373134025522"><ele>692.6666666666667</ele><time>2026-04-29T13:44:05.013Z</time></trkpt><trkpt lat="40.21931594075671" lon="9.553461786232322"><ele>687.3333333333334</ele><time>2026-04-29T13:44:06.013Z</time></trkpt><trkpt lat="40.219360362641666" lon="9.553554562486724"><ele>682.0</ele><time>2026-04-29T13:44:07.013Z</time></trkpt><trkpt lat="40.21940652705782" lon="9.553654032115116"><ele>692.2</ele><time>2026-04-29T13:44:08.013Z</time></trkpt><trkpt lat="40.219464136326366" lon="9.553755497779209"><ele>702.4000000000001</ele><time>2026-04-29T13:44:09.013Z</time></trkpt><trkpt lat="40.219544689810554" lon="9.553806194768217"><ele>712.5999999999999</ele><time>2026-04-29T13:44:10.013Z</time></trkpt><trkpt lat="40.21961787863196" lon="9.55385851679354"><ele>722.8</ele><time>2026-04-29T13:44:11.013Z</time></trkpt><trkpt lat="40.21971109115494" lon="9.55387928976331"><ele>733.0</ele><time>2026-04-29T13:44:12.013Z</time></trkpt><trkpt lat="40.21981618739848" lon="9.553882059459719"><ele>724.75</ele><time>2026-04-29T13:44:13.013Z</time></trkpt><trkpt lat="40.219920066551936" lon="9.553889545814435"><ele>716.5</ele><time>2026-04-29T13:44:14.013Z</time></trkpt><trkpt lat="40.22003385963394" lon="9.55390121019295"><ele>708.25</ele><time>2026-04-29T13:44:15.013Z</time></trkpt><trkpt lat="40.2201589018248" lon="9.553909599924792"><ele>700.0</ele><time>2026-04-29T13:44:16.013Z</time></trkpt><trkpt lat="40.220278361789475" lon="9.553928461360565"><ele>700.0</ele><time>2026-04-29T13:44:17.013Z</time></trkpt><trkpt lat="40.22039773421029" lon="9.553953223515256"><ele>700.0</ele><time>2026-04-29T13:44:18.013Z</time></trkpt><trkpt lat="40.2205107754304" lon="9.5539647000883"><ele>700.0</ele><time>2026-04-29T13:44:19.013Z</time></trkpt><trkpt lat="40.22061255141553" lon="9.553965480397979"><ele>700.0</ele><time>2026-04-29T13:44:20.013Z</time></trkpt><trkpt lat="40.22070798067832" lon="9.553921396662174"><ele>700.0</ele><time>2026-04-29T13:44:21.013Z</time></trkpt><trkpt lat="40.22081014138584" lon="9.553860471682814"><ele>698.6</ele><time>2026-04-29T13:44:22.013Z</time></trkpt><trkpt lat="40.220906306219575" lon="9.553812491795616"><ele>697.2</ele><time>2026-04-29T13:44:23.013Z</time></trkpt><trkpt lat="40.22100363780685" lon="9.553803949455864"><ele>695.8</ele><time>2026-04-29T13:44:24.013Z</time></trkpt><trkpt lat="40.22109721219919" lon="9.55382214699646"><ele>694.4</ele><time>2026-04-29T13:44:25.013Z</time></trkpt><trkpt lat="40.221200730634045" lon="9.553844051834073"><ele>693.0</ele><time>2026-04-29T13:44:26.013Z</time></trkpt><trkpt lat="40.22131470978848" lon="9.553867350333183"><ele>693.0</ele><time>2026-04-29T13:44:27.013Z</time></trkpt><trkpt lat="40.22143130867667" lon="9.553883302766497"><ele>693.0</ele><time>2026-04-29T13:44:28.013Z</time></trkpt><trkpt lat="40.221559093907416" lon="9.553872016676344"><ele>693.0</ele><time>2026-04-29T13:44:29.013Z</time></trkpt><trkpt lat="40.22168920078326" lon="9.553899389369006"><ele>693.0</ele><time>2026-04-29T13:44:30.013Z</time></trkpt><trkpt lat="40.221816227781176" lon="9.553907593626866"><ele>691.0</ele><time>2026-04-29T13:44:31.013Z</time></trkpt><trkpt lat="40.221947822747346" lon="9.55391872421454"><ele>689.0</ele><time>2026-04-29T13:44:32.013Z</time></trkpt><trkpt lat="40.22207329812336" lon="9.553922516656243"><ele>687.0</ele><time>2026-04-29T13:44:33.013Z</time></trkpt><trkpt lat="40.22219390777931" lon="9.553895898449934"><ele>685.0</ele><time>2026-04-29T13:44:34.013Z</time></trkpt><trkpt lat="40.22231579584582" lon="9.553871127037503"><ele>684.5</ele><time>2026-04-29T13:44:35.013Z</time></trkpt><trkpt lat="40.222431672432016" lon="9.553860560145047"><ele>684.0</ele><time>2026-04-29T13:44:36.013Z</time></trkpt><trkpt lat="40.22255674269428" lon="9.553888406270167"><ele>683.5</ele><time>2026-04-29T13:44:37.013Z</time></trkpt><trkpt lat="40.22267989952111" lon="9.553913060173485"><ele>683.0</ele><time>2026-04-29T13:44:38.013Z</time></trkpt><trkpt lat="40.22280098112002" lon="9.553948298038755"><ele>683.0</ele><time>2026-04-29T13:44:39.013Z</time></trkpt><trkpt lat="40.22292684412723" lon="9.553979767774583"><ele>683.0</ele><time>2026-04-29T13:44:40.013Z</time></trkpt><trkpt lat="40.22304566431643" lon="9.553975528752067"><ele>683.0</ele><time>2026-04-29T13:44:41.013Z</time></trkpt><trkpt lat="40.223162820945255" lon="9.553982667751912"><ele>683.0</ele><time>2026-04-29T13:44:42.013Z</time></trkpt><trkpt lat="40.22329642185501" lon="9.553958035420408"><ele>681.25</ele><time>2026-04-29T13:44:43.013Z</time></trkpt><trkpt lat="40.22342025272368" lon="9.553937926895603"><ele>679.5</ele><time>2026-04-29T13:44:44.013Z</time></trkpt><trkpt lat="40.223535023660894" lon="9.55392454919432"><ele>677.75</ele><time>2026-04-29T13:44:45.013Z</time></trkpt><trkpt lat="40.22365088873762" lon="9.553933669138775"><ele>676.0</ele><time>2026-04-29T13:44:46.013Z</time></trkpt><trkpt lat="40.22377610342454" lon="9.553940595647113"><ele>676.0</ele><time>2026-04-29T13:44:47.013Z</time></trkpt><trkpt lat="40.22390031705529" lon="9.553939940646268"><ele>676.0</ele><time>2026-04-29T13:44:48.013Z</time></trkpt><trkpt lat="40.22401613040473" lon="9.553977642789171"><ele>676.0</ele><time>2026-04-29T13:44:49.013Z</time></trkpt><trkpt lat="40.22412605572555" lon="9.554056674743203"><ele>676.0</ele><time>2026-04-29T13:44:50.013Z</time></trkpt><trkpt lat="40.22424268937064" lon="9.554124746371313"><ele>672.5</ele><time>2026-04-29T13:44:51.013Z</time></trkpt><trkpt lat="40.22436635119062" lon="9.554193900212072"><ele>669.0</ele><time>2026-04-29T13:44:52.013Z</time></trkpt><trkpt lat="40.224496913847986" lon="9.554216146436598"><ele>665.5</ele><time>2026-04-29T13:44:53.013Z</time></trkpt><trkpt lat="40.22462698390598" lon="9.554270070094327"><ele>662.0</ele><time>2026-04-29T13:44:54.013Z</time></trkpt><trkpt lat="40.22475690098168" lon="9.554304191114706"><ele>663.75</ele><time>2026-04-29T13:44:55.013Z</time></trkpt><trkpt lat="40.224876098943234" lon="9.5543550441102"><ele>665.5</ele><time>2026-04-29T13:44:56.013Z</time></trkpt><trkpt lat="40.22499326194182" lon="9.554423420578324"><ele>667.25</ele><time>2026-04-29T13:44:57.013Z</time></trkpt><trkpt lat="40.225099879522695" lon="9.55450693310906"><ele>669.0</ele><time>2026-04-29T13:44:58.013Z</time></trkpt><trkpt lat="40.22520745125289" lon="9.55456200709695"><ele>669.0</ele><time>2026-04-29T13:44:59.013Z</time></trkpt><trkpt lat="40.22530962374448" lon="9.55464119689504"><ele>669.0</ele><time>2026-04-29T13:45:00.013Z</time></trkpt><trkpt lat="40.22537961334569" lon="9.554744171306904"><ele>669.0</ele><time>2026-04-29T13:45:01.013Z</time></trkpt><trkpt lat="40.22544980265526" lon="9.554830536343173"><ele>669.0</ele><time>2026-04-29T13:45:02.013Z</time></trkpt><trkpt lat="40.22552634416351" lon="9.554898934957208"><ele>669.0</ele><time>2026-04-29T13:45:03.013Z</time></trkpt><trkpt lat="40.225618321198745" lon="9.554922637281342"><ele>665.0</ele><time>2026-04-29T13:45:04.013Z</time></trkpt><trkpt lat="40.225707939599666" lon="9.554953474888087"><ele>661.0</ele><time>2026-04-29T13:45:05.014Z</time></trkpt><trkpt lat="40.225820423146395" lon="9.554961475718429"><ele>657.0</ele><time>2026-04-29T13:45:06.014Z</time></trkpt><trkpt lat="40.22594336692599" lon="9.554976636171652"><ele>653.0</ele><time>2026-04-29T13:45:07.014Z</time></trkpt><trkpt lat="40.22605934315767" lon="9.555044900265527"><ele>653.0</ele><time>2026-04-29T13:45:08.014Z</time></trkpt><trkpt lat="40.2261918512696" lon="9.555085495585352"><ele>653.0</ele><time>2026-04-29T13:45:09.014Z</time></trkpt><trkpt lat="40.22632597977608" lon="9.555132604740047"><ele>653.0</ele><time>2026-04-29T13:45:10.014Z</time></trkpt><trkpt lat="40.22646157128459" lon="9.555169029688463"><ele>653.0</ele><time>2026-04-29T13:45:11.014Z</time></trkpt><trkpt lat="40.22659026729832" lon="9.555232189933546"><ele>648.75</ele><time>2026-04-29T13:45:12.014Z</time></trkpt><trkpt lat="40.22671596099013" lon="9.555286579125822"><ele>644.5</ele><time>2026-04-29T13:45:13.014Z</time></trkpt><trkpt lat="40.22683996128122" lon="9.555352799719586"><ele>640.25</ele><time>2026-04-29T13:45:14.014Z</time></trkpt><trkpt lat="40.22695913434557" lon="9.555421087173208"><ele>636.0</ele><time>2026-04-29T13:45:15.014Z</time></trkpt><trkpt lat="40.227090843631174" lon="9.555470574446646"><ele>642.25</ele><time>2026-04-29T13:45:16.014Z</time></trkpt><trkpt lat="40.227225465842416" lon="9.555515112744866"><ele>648.5</ele><time>2026-04-29T13:45:17.014Z</time></trkpt><trkpt lat="40.22735635532581" lon="9.555565630478013"><ele>654.75</ele><time>2026-04-29T13:45:18.014Z</time></trkpt><trkpt lat="40.22748306188304" lon="9.555614126861242"><ele>661.0</ele><time>2026-04-29T13:45:19.014Z</time></trkpt><trkpt lat="40.22760407409482" lon="9.555654170897183"><ele>661.0</ele><time>2026-04-29T13:45:20.014Z</time></trkpt><trkpt lat="40.22771270293156" lon="9.555725458050118"><ele>661.0</ele><time>2026-04-29T13:45:21.014Z</time></trkpt><trkpt lat="40.227825457249025" lon="9.555801709362331"><ele>661.0</ele><time>2026-04-29T13:45:22.014Z</time></trkpt><trkpt lat="40.22793327551859" lon="9.55589656341789"><ele>661.0</ele><time>2026-04-29T13:45:23.014Z</time></trkpt><trkpt lat="40.228032892989376" lon="9.555992397136137"><ele>661.0</ele><time>2026-04-29T13:45:24.014Z</time></trkpt><trkpt lat="40.22812241196193" lon="9.556086346984065"><ele>661.0</ele><time>2026-04-29T13:45:25.012Z</time></trkpt><trkpt lat="40.22822942522995" lon="9.556175765396105"><ele>661.0</ele><time>2026-04-29T13:45:26.013Z</time></trkpt><trkpt lat="40.228355704002766" lon="9.556223795942977"><ele>661.0</ele><time>2026-04-29T13:45:27.013Z</time></trkpt><trkpt lat="40.22846377296588" lon="9.55626777769837"><ele>662.0</ele><time>2026-04-29T13:45:28.013Z</time></trkpt><trkpt lat="40.22857766692542" lon="9.556314569609613"><ele>663.0</ele><time>2026-04-29T13:45:29.012Z</time></trkpt><trkpt lat="40.228690628816686" lon="9.55636032343828"><ele>664.0</ele><time>2026-04-29T13:45:30.013Z</time></trkpt><trkpt lat="40.22879711918889" lon="9.556402288427602"><ele>665.0</ele><time>2026-04-29T13:45:31.013Z</time></trkpt><trkpt lat="40.22889123492318" lon="9.556434495267533"><ele>666.0</ele><time>2026-04-29T13:45:32.013Z</time></trkpt><trkpt lat="40.22897925834454" lon="9.556441317673968"><ele>664.0</ele><time>2026-04-29T13:45:33.013Z</time></trkpt><trkpt lat="40.229055289894575" lon="9.556409154680894"><ele>662.0</ele><time>2026-04-29T13:45:34.013Z</time></trkpt><trkpt lat="40.2291260737174" lon="9.556359128302974"><ele>660.0</ele><time>2026-04-29T13:45:35.013Z</time></trkpt><trkpt lat="40.22919551023572" lon="9.556287554676752"><ele>658.0</ele><time>2026-04-29T13:45:36.013Z</time></trkpt><trkpt lat="40.2292668944051" lon="9.556223253004521"><ele>656.0</ele><time>2026-04-29T13:45:37.012Z</time></trkpt><trkpt lat="40.22934132135968" lon="9.55619018281201"><ele>654.0</ele><time>2026-04-29T13:45:38.012Z</time></trkpt><trkpt lat="40.22942159557574" lon="9.556190438348926"><ele>654.0</ele><time>2026-04-29T13:45:39.012Z</time></trkpt><trkpt lat="40.229508805575826" lon="9.556222717022663"><ele>654.0</ele><time>2026-04-29T13:45:40.012Z</time></trkpt><trkpt lat="40.22958442897054" lon="9.55629889627109"><ele>654.0</ele><time>2026-04-29T13:45:41.012Z</time></trkpt><trkpt lat="40.229651219760456" lon="9.55640632212087"><ele>654.0</ele><time>2026-04-29T13:45:42.013Z</time></trkpt><trkpt lat="40.2297195034213" lon="9.556511091512341"><ele>654.0</ele><time>2026-04-29T13:45:43.013Z</time></trkpt><trkpt lat="40.2298148871676" lon="9.556587741902018"><ele>649.75</ele><time>2026-04-29T13:45:44.013Z</time></trkpt><trkpt lat="40.229907832893836" lon="9.556671116265521"><ele>645.5</ele><time>2026-04-29T13:45:45.013Z</time></trkpt><trkpt lat="40.23002845674998" lon="9.556730188514177"><ele>641.25</ele><time>2026-04-29T13:45:46.013Z</time></trkpt><trkpt lat="40.230151958991655" lon="9.55678440565838"><ele>637.0</ele><time>2026-04-29T13:45:47.013Z</time></trkpt><trkpt lat="40.23027450852323" lon="9.556835801840553"><ele>637.0</ele><time>2026-04-29T13:45:48.013Z</time></trkpt><trkpt lat="40.23038655785096" lon="9.556890045508846"><ele>637.0</ele><time>2026-04-29T13:45:49.013Z</time></trkpt><trkpt lat="40.23051273093072" lon="9.556913683761033"><ele>637.0</ele><time>2026-04-29T13:45:50.013Z</time></trkpt><trkpt lat="40.2306375371006" lon="9.556927245593778"><ele>637.0</ele><time>2026-04-29T13:45:51.013Z</time></trkpt><trkpt lat="40.23075318682025" lon="9.55695044529478"><ele>633.0</ele><time>2026-04-29T13:45:52.013Z</time></trkpt><trkpt lat="40.23085738381894" lon="9.556974177819733"><ele>629.0</ele><time>2026-04-29T13:45:53.013Z</time></trkpt><trkpt lat="40.23095016900477" lon="9.557045756101932"><ele>625.0</ele><time>2026-04-29T13:45:54.013Z</time></trkpt><trkpt lat="40.231040121795154" lon="9.557139672521375"><ele>621.0</ele><time>2026-04-29T13:45:55.013Z</time></trkpt><trkpt lat="40.2311277178678" lon="9.557256327606392"><ele>622.8</ele><time>2026-04-29T13:45:56.013Z</time></trkpt><trkpt lat="40.23120466660068" lon="9.557376982019365"><ele>624.6</ele><time>2026-04-29T13:45:57.013Z</time></trkpt><trkpt lat="40.231276445014245" lon="9.557476437887082"><ele>626.4</ele><time>2026-04-29T13:45:58.013Z</time></trkpt><trkpt lat="40.23134278362065" lon="9.557554258346554"><ele>628.2</ele><time>2026-04-29T13:45:59.013Z</time></trkpt><trkpt lat="40.23142822273054" lon="9.557603283770165"><ele>630.0</ele><time>2026-04-29T13:46:00.013Z</time></trkpt><trkpt lat="40.231515114438544" lon="9.557631922062868"><ele>630.0</ele><time>2026-04-29T13:46:01.013Z</time></trkpt><trkpt lat="40.231604674891415" lon="9.557608050013595"><ele>630.0</ele><time>2026-04-29T13:46:02.013Z</time></trkpt><trkpt lat="40.23171053408833" lon="9.557578087023074"><ele>630.0</ele><time>2026-04-29T13:46:03.013Z</time></trkpt><trkpt lat="40.231818973789146" lon="9.557557579796264"><ele>630.0</ele><time>2026-04-29T13:46:04.013Z</time></trkpt><trkpt lat="40.231926360344666" lon="9.557573130450967"><ele>630.0</ele><time>2026-04-29T13:46:05.013Z</time></trkpt><trkpt lat="40.23202964706009" lon="9.557611913607724"><ele>630.0</ele><time>2026-04-29T13:46:06.013Z</time></trkpt><trkpt lat="40.23214317209116" lon="9.557671761942002"><ele>630.0</ele><time>2026-04-29T13:46:07.013Z</time></trkpt><trkpt lat="40.23226098556319" lon="9.557717467993948"><ele>630.0</ele><time>2026-04-29T13:46:08.013Z</time></trkpt><trkpt lat="40.23237701096741" lon="9.557769144690598"><ele>630.0</ele><time>2026-04-29T13:46:09.013Z</time></trkpt><trkpt lat="40.232495178093274" lon="9.557823169694986"><ele>635.25</ele><time>2026-04-29T13:46:10.013Z</time></trkpt><trkpt lat="40.23259664337476" lon="9.557879051159807"><ele>640.5</ele><time>2026-04-29T13:46:11.013Z</time></trkpt><trkpt lat="40.232707045389" lon="9.557949032067421"><ele>645.75</ele><time>2026-04-29T13:46:12.013Z</time></trkpt><trkpt lat="40.23281132009874" lon="9.558024309181766"><ele>651.0</ele><time>2026-04-29T13:46:13.013Z</time></trkpt><trkpt lat="40.232902684892295" lon="9.558107972061432"><ele>651.0</ele><time>2026-04-29T13:46:14.013Z</time></trkpt><trkpt lat="40.232972960044386" lon="9.55820374790691"><ele>651.0</ele><time>2026-04-29T13:46:15.013Z</time></trkpt><trkpt lat="40.23301510218547" lon="9.558309158741485"><ele>651.0</ele><time>2026-04-29T13:46:16.013Z</time></trkpt><trkpt lat="40.2330471635448" lon="9.558421929546517"><ele>651.0</ele><time>2026-04-29T13:46:17.013Z</time></trkpt><trkpt lat="40.23304753388621" lon="9.558535173808053"><ele>651.0</ele><time>2026-04-29T13:46:18.013Z</time></trkpt><trkpt lat="40.23308510487138" lon="9.558634465712426"><ele>649.5999999999999</ele><time>2026-04-29T13:46:19.013Z</time></trkpt><trkpt lat="40.233112134539404" lon="9.558720056065011"><ele>648.2</ele><time>2026-04-29T13:46:20.013Z</time></trkpt><trkpt lat="40.23317263697421" lon="9.558794067404829"><ele>646.8</ele><time>2026-04-29T13:46:21.013Z</time></trkpt><trkpt lat="40.23325460153975" lon="9.558858206267116"><ele>645.4000000000001</ele><time>2026-04-29T13:46:22.013Z</time></trkpt><trkpt lat="40.233344955467246" lon="9.558933709179378"><ele>644.0</ele><time>2026-04-29T13:46:23.013Z</time></trkpt><trkpt lat="40.23344574888885" lon="9.559006667451323"><ele>644.0</ele><time>2026-04-29T13:46:24.013Z</time></trkpt><trkpt lat="40.23353780350529" lon="9.55910217476602"><ele>644.0</ele><time>2026-04-29T13:46:25.013Z</time></trkpt><trkpt lat="40.23362814990925" lon="9.55921135989954"><ele>644.0</ele><time>2026-04-29T13:46:26.013Z</time></trkpt><trkpt lat="40.23370593145814" lon="9.559331321735865"><ele>644.0</ele><time>2026-04-29T13:46:27.013Z</time></trkpt><trkpt lat="40.23381029787726" lon="9.559422939061625"><ele>644.0</ele><time>2026-04-29T13:46:28.013Z</time></trkpt><trkpt lat="40.23391416474056" lon="9.559513644816521"><ele>644.0</ele><time>2026-04-29T13:46:29.013Z</time></trkpt><trkpt lat="40.23402157500983" lon="9.559590200673126"><ele>644.0</ele><time>2026-04-29T13:46:30.013Z</time></trkpt><trkpt lat="40.23413189060641" lon="9.559666944613124"><ele>644.0</ele><time>2026-04-29T13:46:31.013Z</time></trkpt><trkpt lat="40.23424370046234" lon="9.559754484231902"><ele>642.5</ele><time>2026-04-29T13:46:32.013Z</time></trkpt><trkpt lat="40.23435789306543" lon="9.559845120565592"><ele>641.0</ele><time>2026-04-29T13:46:33.013Z</time></trkpt><trkpt lat="40.23447003977222" lon="9.559945835784998"><ele>639.5</ele><time>2026-04-29T13:46:34.013Z</time></trkpt><trkpt lat="40.23457826282762" lon="9.560050137814914"><ele>638.0</ele><time>2026-04-29T13:46:35.013Z</time></trkpt><trkpt lat="40.23469076126266" lon="9.56014798563451"><ele>638.0</ele><time>2026-04-29T13:46:36.013Z</time></trkpt><trkpt lat="40.23480141206059" lon="9.560241858509393"><ele>638.0</ele><time>2026-04-29T13:46:37.013Z</time></trkpt><trkpt lat="40.23489889534336" lon="9.560327935775785"><ele>638.0</ele><time>2026-04-29T13:46:38.013Z</time></trkpt><trkpt lat="40.23500324939504" lon="9.560403083811023"><ele>638.0</ele><time>2026-04-29T13:46:39.013Z</time></trkpt><trkpt lat="40.235118275934404" lon="9.560460148583868"><ele>641.0</ele><time>2026-04-29T13:46:40.013Z</time></trkpt><trkpt lat="40.23523798432782" lon="9.560512728667646"><ele>644.0</ele><time>2026-04-29T13:46:41.013Z</time></trkpt><trkpt lat="40.235366435626815" lon="9.560550742663239"><ele>647.0</ele><time>2026-04-29T13:46:42.013Z</time></trkpt><trkpt lat="40.23549069393849" lon="9.560602053874495"><ele>650.0</ele><time>2026-04-29T13:46:43.013Z</time></trkpt><trkpt lat="40.23560547768206" lon="9.560642562257287"><ele>641.75</ele><time>2026-04-29T13:46:44.013Z</time></trkpt><trkpt lat="40.23570281019056" lon="9.56068994473368"><ele>633.5</ele><time>2026-04-29T13:46:45.013Z</time></trkpt><trkpt lat="40.23581556730463" lon="9.560752613413817"><ele>625.25</ele><time>2026-04-29T13:46:46.013Z</time></trkpt><trkpt lat="40.23593398962287" lon="9.560837090981309"><ele>617.0</ele><time>2026-04-29T13:46:47.013Z</time></trkpt><trkpt lat="40.23604861197745" lon="9.560927045957014"><ele>617.0</ele><time>2026-04-29T13:46:48.013Z</time></trkpt><trkpt lat="40.23614992863031" lon="9.561033522544852"><ele>617.0</ele><time>2026-04-29T13:46:49.013Z</time></trkpt><trkpt lat="40.236235938717634" lon="9.56115553743597"><ele>617.0</ele><time>2026-04-29T13:46:50.013Z</time></trkpt><trkpt lat="40.236322214725284" lon="9.561281658617512"><ele>617.0</ele><time>2026-04-29T13:46:51.013Z</time></trkpt><trkpt lat="40.2364007950178" lon="9.561407742194303"><ele>615.75</ele><time>2026-04-29T13:46:52.013Z</time></trkpt><trkpt lat="40.236494398342" lon="9.561524358754246"><ele>614.5</ele><time>2026-04-29T13:46:53.013Z</time></trkpt><trkpt lat="40.23658911709503" lon="9.561633059850855"><ele>613.25</ele><time>2026-04-29T13:46:54.013Z</time></trkpt><trkpt lat="40.23668432508689" lon="9.561738918531047"><ele>612.0</ele><time>2026-04-29T13:46:55.013Z</time></trkpt><trkpt lat="40.236794852300775" lon="9.561833440777862"><ele>612.0</ele><time>2026-04-29T13:46:56.013Z</time></trkpt><trkpt lat="40.236898671869554" lon="9.561928370582491"><ele>612.0</ele><time>2026-04-29T13:46:57.013Z</time></trkpt><trkpt lat="40.23700531066954" lon="9.562016370613145"><ele>612.0</ele><time>2026-04-29T13:46:58.013Z</time></trkpt><trkpt lat="40.237111097827935" lon="9.562108795117165"><ele>612.0</ele><time>2026-04-29T13:46:59.013Z</time></trkpt><trkpt lat="40.237218537085624" lon="9.56220270087833"><ele>609.75</ele><time>2026-04-29T13:47:00.013Z</time></trkpt><trkpt lat="40.23732042025856" lon="9.562291632544609"><ele>607.5</ele><time>2026-04-29T13:47:01.013Z</time></trkpt><trkpt lat="40.237420775787726" lon="9.562380762375948"><ele>605.25</ele><time>2026-04-29T13:47:02.013Z</time></trkpt><trkpt lat="40.237509512288156" lon="9.562472688792255"><ele>603.0</ele><time>2026-04-29T13:47:03.013Z</time></trkpt><trkpt lat="40.237609822955676" lon="9.56256475816616"><ele>603.0</ele><time>2026-04-29T13:47:04.013Z</time></trkpt><trkpt lat="40.2376978806171" lon="9.562677260341626"><ele>603.0</ele><time>2026-04-29T13:47:05.013Z</time></trkpt><trkpt lat="40.23778283634408" lon="9.562800191216883"><ele>603.0</ele><time>2026-04-29T13:47:06.013Z</time></trkpt><trkpt lat="40.23786625960354" lon="9.562931641945932"><ele>603.0</ele><time>2026-04-29T13:47:07.013Z</time></trkpt><trkpt lat="40.23794171822284" lon="9.563065080670809"><ele>597.75</ele><time>2026-04-29T13:47:08.013Z</time></trkpt><trkpt lat="40.2379996577569" lon="9.563217725536912"><ele>592.5</ele><time>2026-04-29T13:47:09.013Z</time></trkpt><trkpt lat="40.238057447221045" lon="9.563366493345148"><ele>587.25</ele><time>2026-04-29T13:47:10.013Z</time></trkpt><trkpt lat="40.23810905845851" lon="9.563522414165814"><ele>582.0</ele><time>2026-04-29T13:47:11.013Z</time></trkpt><trkpt lat="40.23816316170575" lon="9.563679557395844"><ele>591.25</ele><time>2026-04-29T13:47:12.013Z</time></trkpt><trkpt lat="40.23822690681985" lon="9.563827079880475"><ele>600.5</ele><time>2026-04-29T13:47:13.014Z</time></trkpt><trkpt lat="40.238286998119385" lon="9.563976656025128"><ele>609.75</ele><time>2026-04-29T13:47:14.014Z</time></trkpt><trkpt lat="40.23836523319373" lon="9.56411736286115"><ele>619.0</ele><time>2026-04-29T13:47:15.014Z</time></trkpt><trkpt lat="40.238445600937666" lon="9.56425535434798"><ele>619.0</ele><time>2026-04-29T13:47:16.014Z</time></trkpt><trkpt lat="40.23853319454022" lon="9.56438218642511"><ele>619.0</ele><time>2026-04-29T13:47:17.014Z</time></trkpt><trkpt lat="40.23862642907262" lon="9.564502361739239"><ele>619.0</ele><time>2026-04-29T13:47:18.014Z</time></trkpt><trkpt lat="40.238757402455434" lon="9.564597201607834"><ele>619.0</ele><time>2026-04-29T13:47:19.014Z</time></trkpt><trkpt lat="40.23885979602094" lon="9.56469700701607"><ele>616.0</ele><time>2026-04-29T13:47:20.014Z</time></trkpt><trkpt lat="40.238966767822866" lon="9.564780581653052"><ele>613.0</ele><time>2026-04-29T13:47:21.014Z</time></trkpt><trkpt lat="40.239086782480356" lon="9.564833060152225"><ele>610.0</ele><time>2026-04-29T13:47:22.014Z</time></trkpt><trkpt lat="40.23920391031861" lon="9.564882842490544"><ele>607.0</ele><time>2026-04-29T13:47:23.014Z</time></trkpt><trkpt lat="40.239311771163564" lon="9.564928518315423"><ele>607.0</ele><time>2026-04-29T13:47:24.014Z</time></trkpt><trkpt lat="40.23941117306039" lon="9.564999033651072"><ele>607.0</ele><time>2026-04-29T13:47:25.014Z</time></trkpt><trkpt lat="40.23947655609849" lon="9.56512323071321"><ele>607.0</ele><time>2026-04-29T13:47:26.014Z</time></trkpt><trkpt lat="40.23956024966803" lon="9.565236012904817"><ele>607.0</ele><time>2026-04-29T13:47:27.014Z</time></trkpt><trkpt lat="40.23965837450827" lon="9.565326436766588"><ele>606.25</ele><time>2026-04-29T13:47:28.014Z</time></trkpt><trkpt lat="40.239745745974446" lon="9.565433300413767"><ele>605.5</ele><time>2026-04-29T13:47:29.014Z</time></trkpt><trkpt lat="40.23984603826757" lon="9.565519257889662"><ele>604.75</ele><time>2026-04-29T13:47:30.014Z</time></trkpt><trkpt lat="40.2399745911983" lon="9.565593986392347"><ele>604.0</ele><time>2026-04-29T13:47:31.013Z</time></trkpt><trkpt lat="40.240092394320435" lon="9.565668554650866"><ele>604.0</ele><time>2026-04-29T13:47:32.012Z</time></trkpt><trkpt lat="40.240211067369245" lon="9.565737003892195"><ele>604.0</ele><time>2026-04-29T13:47:33.012Z</time></trkpt><trkpt lat="40.24030757516253" lon="9.565844181232722"><ele>604.0</ele><time>2026-04-29T13:47:34.013Z</time></trkpt><trkpt lat="40.24043034079455" lon="9.565905023042328"><ele>604.0</ele><time>2026-04-29T13:47:35.013Z</time></trkpt><trkpt lat="40.240564957241375" lon="9.565948514399281"><ele>595.5</ele><time>2026-04-29T13:47:36.013Z</time></trkpt><trkpt lat="40.24069089536215" lon="9.566001147641899"><ele>587.0</ele><time>2026-04-29T13:47:37.013Z</time></trkpt><trkpt lat="40.24081294571894" lon="9.566047224926226"><ele>578.5</ele><time>2026-04-29T13:47:38.013Z</time></trkpt><trkpt lat="40.24093114193161" lon="9.566093450182446"><ele>570.0</ele><time>2026-04-29T13:47:39.013Z</time></trkpt><trkpt lat="40.2410389831218" lon="9.5661343728242"><ele>570.0</ele><time>2026-04-29T13:47:40.013Z</time></trkpt><trkpt lat="40.24115471019257" lon="9.566185224568047"><ele>570.0</ele><time>2026-04-29T13:47:41.013Z</time></trkpt><trkpt lat="40.241272144464965" lon="9.566245535613977"><ele>570.0</ele><time>2026-04-29T13:47:42.013Z</time></trkpt><trkpt lat="40.24138290236441" lon="9.566329356292425"><ele>570.0</ele><time>2026-04-29T13:47:43.013Z</time></trkpt><trkpt lat="40.24148143146155" lon="9.56642269765796"><ele>571.75</ele><time>2026-04-29T13:47:44.013Z</time></trkpt><trkpt lat="40.24157668312666" lon="9.566521632833624"><ele>573.5</ele><time>2026-04-29T13:47:45.013Z</time></trkpt><trkpt lat="40.24167060935548" lon="9.566630834739534"><ele>575.25</ele><time>2026-04-29T13:47:46.013Z</time></trkpt><trkpt lat="40.2417457408088" lon="9.566755642099256"><ele>577.0</ele><time>2026-04-29T13:47:47.013Z</time></trkpt><trkpt lat="40.24180812263519" lon="9.566876980830651"><ele>577.0</ele><time>2026-04-29T13:47:48.013Z</time></trkpt><trkpt lat="40.241864015578024" lon="9.567020128543211"><ele>577.0</ele><time>2026-04-29T13:47:49.013Z</time></trkpt><trkpt lat="40.2418565049059" lon="9.567197771451188"><ele>577.0</ele><time>2026-04-29T13:47:50.013Z</time></trkpt><trkpt lat="40.24189156892836" lon="9.567331475162579"><ele>577.0</ele><time>2026-04-29T13:47:51.013Z</time></trkpt><trkpt lat="40.24192665328819" lon="9.567424340700994"><ele>577.0</ele><time>2026-04-29T13:47:52.013Z</time></trkpt><trkpt lat="40.2419647887311" lon="9.567504937598434"><ele>581.2</ele><time>2026-04-29T13:47:53.013Z</time></trkpt><trkpt lat="40.242035719310934" lon="9.56758137880534"><ele>585.4000000000001</ele><time>2026-04-29T13:47:54.013Z</time></trkpt><trkpt lat="40.24213433236209" lon="9.56764671647857"><ele>589.5999999999999</ele><time>2026-04-29T13:47:55.013Z</time></trkpt><trkpt lat="40.242227801052714" lon="9.567716034050278"><ele>593.8</ele><time>2026-04-29T13:47:56.013Z</time></trkpt><trkpt lat="40.242326731515135" lon="9.567786105281892"><ele>598.0</ele><time>2026-04-29T13:47:57.014Z</time></trkpt><trkpt lat="40.24243609420423" lon="9.567858209984122"><ele>597.5</ele><time>2026-04-29T13:47:58.014Z</time></trkpt><trkpt lat="40.24253936781549" lon="9.567926284347978"><ele>597.0</ele><time>2026-04-29T13:47:59.014Z</time></trkpt><trkpt lat="40.2426368584139" lon="9.56800615333052"><ele>596.5</ele><time>2026-04-29T13:48:00.014Z</time></trkpt><trkpt lat="40.242747676318245" lon="9.5680886656382"><ele>596.0</ele><time>2026-04-29T13:48:01.014Z</time></trkpt><trkpt lat="40.24284350462128" lon="9.56817550805823"><ele>596.0</ele><time>2026-04-29T13:48:02.014Z</time></trkpt><trkpt lat="40.24293921297403" lon="9.568248488252234"><ele>596.0</ele><time>2026-04-29T13:48:03.014Z</time></trkpt><trkpt lat="40.2430361320138" lon="9.56832543922873"><ele>596.0</ele><time>2026-04-29T13:48:04.014Z</time></trkpt><trkpt lat="40.24314102793571" lon="9.56838847710778"><ele>596.0</ele><time>2026-04-29T13:48:05.014Z</time></trkpt><trkpt lat="40.243257570794526" lon="9.568439090441856"><ele>586.25</ele><time>2026-04-29T13:48:06.014Z</time></trkpt><trkpt lat="40.24336348259619" lon="9.568521437796523"><ele>576.5</ele><time>2026-04-29T13:48:07.014Z</time></trkpt><trkpt lat="40.24348548178255" lon="9.568568449499613"><ele>566.75</ele><time>2026-04-29T13:48:08.014Z</time></trkpt><trkpt lat="40.243595056823416" lon="9.568605173591298"><ele>557.0</ele><time>2026-04-29T13:48:09.014Z</time></trkpt><trkpt lat="40.243701509098564" lon="9.568647848421513"><ele>558.75</ele><time>2026-04-29T13:48:10.014Z</time></trkpt><trkpt lat="40.243800148036875" lon="9.568716829990665"><ele>560.5</ele><time>2026-04-29T13:48:11.014Z</time></trkpt><trkpt lat="40.24389179717236" lon="9.568806857135094"><ele>562.25</ele><time>2026-04-29T13:48:12.014Z</time></trkpt><trkpt lat="40.24397955599553" lon="9.568914614880821"><ele>564.0</ele><time>2026-04-29T13:48:13.014Z</time></trkpt><trkpt lat="40.24408001839772" lon="9.569012177574209"><ele>564.0</ele><time>2026-04-29T13:48:14.014Z</time></trkpt><trkpt lat="40.24417601002889" lon="9.5691193906125"><ele>564.0</ele><time>2026-04-29T13:48:15.014Z</time></trkpt><trkpt lat="40.24427766015747" lon="9.569234635192414"><ele>564.0</ele><time>2026-04-29T13:48:16.014Z</time></trkpt><trkpt lat="40.244381062972025" lon="9.569348730181623"><ele>564.0</ele><time>2026-04-29T13:48:17.014Z</time></trkpt><trkpt lat="40.244486826696665" lon="9.569456251665873"><ele>563.75</ele><time>2026-04-29T13:48:18.014Z</time></trkpt><trkpt lat="40.2445829900422" lon="9.569563921922489"><ele>563.5</ele><time>2026-04-29T13:48:19.014Z</time></trkpt><trkpt lat="40.24467448391236" lon="9.569665894583569"><ele>563.25</ele><time>2026-04-29T13:48:20.014Z</time></trkpt><trkpt lat="40.24477257551593" lon="9.569766843812634"><ele>563.0</ele><time>2026-04-29T13:48:21.014Z</time></trkpt><trkpt lat="40.24487004989651" lon="9.569872043438133"><ele>563.0</ele><time>2026-04-29T13:48:22.014Z</time></trkpt><trkpt lat="40.24497611460159" lon="9.569981098785314"><ele>563.0</ele><time>2026-04-29T13:48:23.014Z</time></trkpt><trkpt lat="40.24506203360864" lon="9.570101557992245"><ele>563.0</ele><time>2026-04-29T13:48:24.014Z</time></trkpt><trkpt lat="40.2451434675755" lon="9.570212723946753"><ele>563.0</ele><time>2026-04-29T13:48:25.014Z</time></trkpt><trkpt lat="40.24523102654497" lon="9.570317451152821"><ele>561.5</ele><time>2026-04-29T13:48:26.014Z</time></trkpt><trkpt lat="40.24532864752828" lon="9.570416644763927"><ele>560.0</ele><time>2026-04-29T13:48:27.014Z</time></trkpt><trkpt lat="40.24544595075327" lon="9.57050524602549"><ele>558.5</ele><time>2026-04-29T13:48:28.014Z</time></trkpt><trkpt lat="40.24555422778608" lon="9.57060512920648"><ele>557.0</ele><time>2026-04-29T13:48:29.014Z</time></trkpt><trkpt lat="40.24566857511147" lon="9.57070824466456"><ele>557.0</ele><time>2026-04-29T13:48:30.014Z</time></trkpt><trkpt lat="40.24578117331002" lon="9.570810152581323"><ele>557.0</ele><time>2026-04-29T13:48:31.014Z</time></trkpt><trkpt lat="40.245893540296485" lon="9.570907441012855"><ele>557.0</ele><time>2026-04-29T13:48:32.014Z</time></trkpt><trkpt lat="40.24600503910223" lon="9.571005666076905"><ele>557.0</ele><time>2026-04-29T13:48:33.014Z</time></trkpt><trkpt lat="40.24611798814293" lon="9.571095709646519"><ele>557.0</ele><time>2026-04-29T13:48:34.014Z</time></trkpt><trkpt lat="40.2462370409546" lon="9.571176124483186"><ele>557.0</ele><time>2026-04-29T13:48:35.014Z</time></trkpt><trkpt lat="40.2463541740014" lon="9.571261877907613"><ele>557.0</ele><time>2026-04-29T13:48:36.014Z</time></trkpt><trkpt lat="40.24646527558386" lon="9.571341835321618"><ele>557.0</ele><time>2026-04-29T13:48:37.014Z</time></trkpt><trkpt lat="40.246576954798044" lon="9.571423545678309"><ele>557.75</ele><time>2026-04-29T13:48:38.014Z</time></trkpt><trkpt lat="40.246685351350955" lon="9.571510457822027"><ele>558.5</ele><time>2026-04-29T13:48:39.014Z</time></trkpt><trkpt lat="40.24678093608905" lon="9.571609062323658"><ele>559.25</ele><time>2026-04-29T13:48:40.014Z</time></trkpt><trkpt lat="40.246868677015314" lon="9.571705700705278"><ele>560.0</ele><time>2026-04-29T13:48:41.014Z</time></trkpt><trkpt lat="40.24694649645681" lon="9.57180404672579"><ele>560.0</ele><time>2026-04-29T13:48:42.014Z</time></trkpt><trkpt lat="40.247024889735265" lon="9.57188408814889"><ele>560.0</ele><time>2026-04-29T13:48:43.014Z</time></trkpt><trkpt lat="40.24712304775768" lon="9.57193726037918"><ele>560.0</ele><time>2026-04-29T13:48:44.014Z</time></trkpt><trkpt lat="40.247224904484106" lon="9.571978885256971"><ele>560.0</ele><time>2026-04-29T13:48:45.014Z</time></trkpt><trkpt lat="40.24733532425881" lon="9.571997715891994"><ele>560.0</ele><time>2026-04-29T13:48:46.014Z</time></trkpt><trkpt lat="40.2474488261499" lon="9.572010640390564"><ele>565.5</ele><time>2026-04-29T13:48:47.014Z</time></trkpt><trkpt lat="40.24756599124837" lon="9.572034951480767"><ele>571.0</ele><time>2026-04-29T13:48:48.014Z</time></trkpt><trkpt lat="40.24766944206266" lon="9.572087687139689"><ele>576.5</ele><time>2026-04-29T13:48:49.014Z</time></trkpt><trkpt lat="40.2477927859224" lon="9.572154642994054"><ele>582.0</ele><time>2026-04-29T13:48:50.014Z</time></trkpt><trkpt lat="40.247898506300835" lon="9.572243369657832"><ele>582.0</ele><time>2026-04-29T13:48:51.014Z</time></trkpt><trkpt lat="40.24801143683682" lon="9.572353473725975"><ele>582.0</ele><time>2026-04-29T13:48:52.014Z</time></trkpt><trkpt lat="40.248123104452375" lon="9.572453906584707"><ele>582.0</ele><time>2026-04-29T13:48:53.014Z</time></trkpt><trkpt lat="40.24823692514959" lon="9.57255625572775"><ele>582.0</ele><time>2026-04-29T13:48:54.014Z</time></trkpt><trkpt lat="40.24835702790328" lon="9.572651392428437"><ele>588.75</ele><time>2026-04-29T13:48:55.014Z</time></trkpt><trkpt lat="40.24847444878306" lon="9.572739473689683"><ele>595.5</ele><time>2026-04-29T13:48:56.014Z</time></trkpt><trkpt lat="40.24859026533974" lon="9.572818453417968"><ele>602.25</ele><time>2026-04-29T13:48:57.014Z</time></trkpt><trkpt lat="40.2487155518959" lon="9.572881279522031"><ele>609.0</ele><time>2026-04-29T13:48:58.014Z</time></trkpt><trkpt lat="40.24883468090768" lon="9.572935715808713"><ele>597.0</ele><time>2026-04-29T13:48:59.014Z</time></trkpt><trkpt lat="40.24896100844593" lon="9.57296356232293"><ele>585.0</ele><time>2026-04-29T13:49:00.014Z</time></trkpt><trkpt lat="40.249086201301736" lon="9.572967042469427"><ele>573.0</ele><time>2026-04-29T13:49:01.014Z</time></trkpt><trkpt lat="40.24921812148155" lon="9.572965300803885"><ele>561.0</ele><time>2026-04-29T13:49:02.014Z</time></trkpt><trkpt lat="40.249343806665" lon="9.572973672001206"><ele>561.0</ele><time>2026-04-29T13:49:03.014Z</time></trkpt><trkpt lat="40.24947153710151" lon="9.572975175455158"><ele>561.0</ele><time>2026-04-29T13:49:04.014Z</time></trkpt><trkpt lat="40.24959486233495" lon="9.573003591050435"><ele>561.0</ele><time>2026-04-29T13:49:05.014Z</time></trkpt><trkpt lat="40.24971684758959" lon="9.573053141503456"><ele>561.0</ele><time>2026-04-29T13:49:06.014Z</time></trkpt><trkpt lat="40.24982963955989" lon="9.57313062169596"><ele>554.75</ele><time>2026-04-29T13:49:07.014Z</time></trkpt><trkpt lat="40.249949536727314" lon="9.57322670402155"><ele>548.5</ele><time>2026-04-29T13:49:08.014Z</time></trkpt><trkpt lat="40.250069239656945" lon="9.57330615637601"><ele>542.25</ele><time>2026-04-29T13:49:09.014Z</time></trkpt><trkpt lat="40.25018451243396" lon="9.573380888881397"><ele>536.0</ele><time>2026-04-29T13:49:10.014Z</time></trkpt><trkpt lat="40.25030305653514" lon="9.573446340167452"><ele>536.0</ele><time>2026-04-29T13:49:11.014Z</time></trkpt><trkpt lat="40.25040508242174" lon="9.57348795221775"><ele>536.0</ele><time>2026-04-29T13:49:12.014Z</time></trkpt><trkpt lat="40.25050571709019" lon="9.573509002867947"><ele>536.0</ele><time>2026-04-29T13:49:13.014Z</time></trkpt><trkpt lat="40.25060702983113" lon="9.573527892816998"><ele>536.0</ele><time>2026-04-29T13:49:14.014Z</time></trkpt><trkpt lat="40.25069284820609" lon="9.573545190597429"><ele>536.0</ele><time>2026-04-29T13:49:15.014Z</time></trkpt><trkpt lat="40.25077509032102" lon="9.573582157082956"><ele>539.4</ele><time>2026-04-29T13:49:16.014Z</time></trkpt><trkpt lat="40.2508557947783" lon="9.573667764606656"><ele>542.8</ele><time>2026-04-29T13:49:17.014Z</time></trkpt><trkpt lat="40.25093079086324" lon="9.573749074089482"><ele>546.1999999999999</ele><time>2026-04-29T13:49:18.014Z</time></trkpt><trkpt lat="40.25101612074363" lon="9.573820688108508"><ele>549.6</ele><time>2026-04-29T13:49:19.014Z</time></trkpt><trkpt lat="40.251111465881294" lon="9.573878976355312"><ele>553.0</ele><time>2026-04-29T13:49:20.014Z</time></trkpt><trkpt lat="40.25122042497983" lon="9.57390575392887"><ele>553.0</ele><time>2026-04-29T13:49:21.014Z</time></trkpt><trkpt lat="40.251338181270384" lon="9.57392948793841"><ele>553.0</ele><time>2026-04-29T13:49:22.014Z</time></trkpt><trkpt lat="40.25146726693075" lon="9.573974611600837"><ele>553.0</ele><time>2026-04-29T13:49:23.014Z</time></trkpt><trkpt lat="40.25158088177096" lon="9.574033154729435"><ele>553.0</ele><time>2026-04-29T13:49:24.014Z</time></trkpt><trkpt lat="40.25168708583279" lon="9.574118812922203"><ele>548.0</ele><time>2026-04-29T13:49:25.014Z</time></trkpt><trkpt lat="40.251784320340356" lon="9.574212071668551"><ele>543.0</ele><time>2026-04-29T13:49:26.014Z</time></trkpt><trkpt lat="40.25188020093789" lon="9.574299379634146"><ele>538.0</ele><time>2026-04-29T13:49:27.014Z</time></trkpt><trkpt lat="40.252001288491975" lon="9.574357184022759"><ele>533.0</ele><time>2026-04-29T13:49:28.015Z</time></trkpt><trkpt lat="40.25213510639423" lon="9.574371714294385"><ele>533.0</ele><time>2026-04-29T13:49:29.015Z</time></trkpt><trkpt lat="40.25223853740307" lon="9.57443241192049"><ele>533.0</ele><time>2026-04-29T13:49:30.015Z</time></trkpt><trkpt lat="40.25234304362725" lon="9.574489483522218"><ele>533.0</ele><time>2026-04-29T13:49:31.015Z</time></trkpt><trkpt lat="40.252453547155206" lon="9.574567361114259"><ele>533.0</ele><time>2026-04-29T13:49:32.015Z</time></trkpt><trkpt lat="40.25257759480826" lon="9.574627121737274"><ele>535.75</ele><time>2026-04-29T13:49:33.015Z</time></trkpt><trkpt lat="40.25269404973469" lon="9.574702814571483"><ele>538.5</ele><time>2026-04-29T13:49:34.015Z</time></trkpt><trkpt lat="40.252819143459874" lon="9.574763895692378"><ele>541.25</ele><time>2026-04-29T13:49:35.015Z</time></trkpt><trkpt lat="40.2529435388184" lon="9.574825739312393"><ele>544.0</ele><time>2026-04-29T13:49:36.015Z</time></trkpt><trkpt lat="40.25306326722523" lon="9.574883691387708"><ele>539.5</ele><time>2026-04-29T13:49:37.014Z</time></trkpt><trkpt lat="40.253185452110785" lon="9.574943398076824"><ele>535.0</ele><time>2026-04-29T13:49:38.013Z</time></trkpt><trkpt lat="40.25330455313747" lon="9.57499731557939"><ele>530.5</ele><time>2026-04-29T13:49:39.013Z</time></trkpt><trkpt lat="40.25342447667602" lon="9.575031820815047"><ele>526.0</ele><time>2026-04-29T13:49:40.013Z</time></trkpt><trkpt lat="40.2535510270136" lon="9.57505581870422"><ele>526.0</ele><time>2026-04-29T13:49:41.013Z</time></trkpt><trkpt lat="40.25367706005054" lon="9.575090670610695"><ele>526.0</ele><time>2026-04-29T13:49:42.013Z</time></trkpt><trkpt lat="40.25380178599719" lon="9.575104315676809"><ele>526.0</ele><time>2026-04-29T13:49:43.013Z</time></trkpt><trkpt lat="40.25391927221301" lon="9.575119040315858"><ele>526.0</ele><time>2026-04-29T13:49:44.014Z</time></trkpt><trkpt lat="40.25402879352369" lon="9.575129621098789"><ele>526.5</ele><time>2026-04-29T13:49:45.014Z</time></trkpt><trkpt lat="40.254134225833596" lon="9.57515256804603"><ele>527.0</ele><time>2026-04-29T13:49:46.013Z</time></trkpt><trkpt lat="40.25421402192452" lon="9.575177639011407"><ele>527.5</ele><time>2026-04-29T13:49:47.013Z</time></trkpt><trkpt lat="40.25427325719699" lon="9.575229757820038"><ele>528.0</ele><time>2026-04-29T13:49:48.013Z</time></trkpt><trkpt lat="40.254318637415416" lon="9.575298256441844"><ele>528.5</ele><time>2026-04-29T13:49:49.013Z</time></trkpt><trkpt lat="40.254344258840824" lon="9.575398494963018"><ele>529.0</ele><time>2026-04-29T13:49:50.013Z</time></trkpt><trkpt lat="40.25436125202106" lon="9.575489984656935"><ele>529.0</ele><time>2026-04-29T13:49:51.013Z</time></trkpt><trkpt lat="40.25437796908723" lon="9.575632812025221"><ele>529.0</ele><time>2026-04-29T13:49:53.013Z</time></trkpt><trkpt lat="40.25434524756744" lon="9.57550464875724"><ele>529.0</ele><time>2026-04-29T13:50:09.013Z</time></trkpt><trkpt lat="40.2543096410149" lon="9.575429617498878"><ele>529.0</ele><time>2026-04-29T13:50:11.013Z</time></trkpt><trkpt lat="40.2543787474944" lon="9.575509920576394"><ele>529.0</ele><time>2026-04-29T13:50:16.013Z</time></trkpt><trkpt lat="40.25439631333049" lon="9.575589409496642"><ele>529.0</ele><time>2026-04-29T13:50:17.013Z</time></trkpt><trkpt lat="40.25442700166808" lon="9.57567378301382"><ele>529.0</ele><time>2026-04-29T13:50:18.013Z</time></trkpt><trkpt lat="40.25446442096707" lon="9.575762487923239"><ele>529.0</ele><time>2026-04-29T13:50:19.013Z</time></trkpt><trkpt lat="40.254511227834094" lon="9.575849213014825"><ele>529.0</ele><time>2026-04-29T13:50:20.013Z</time></trkpt><trkpt lat="40.254574598372756" lon="9.575932282567305"><ele>529.0</ele><time>2026-04-29T13:50:21.013Z</time></trkpt><trkpt lat="40.25464957976526" lon="9.576021150010128"><ele>529.0</ele><time>2026-04-29T13:50:22.013Z</time></trkpt><trkpt lat="40.25473565901822" lon="9.576111859932038"><ele>527.5</ele><time>2026-04-29T13:50:23.013Z</time></trkpt><trkpt lat="40.25482370065083" lon="9.576200582316416"><ele>526.0</ele><time>2026-04-29T13:50:24.013Z</time></trkpt><trkpt lat="40.254910006994926" lon="9.576294352496035"><ele>524.5</ele><time>2026-04-29T13:50:25.013Z</time></trkpt><trkpt lat="40.25500341208587" lon="9.57639239566129"><ele>523.0</ele><time>2026-04-29T13:50:26.013Z</time></trkpt><trkpt lat="40.25508413639041" lon="9.576500422689087"><ele>523.0</ele><time>2026-04-29T13:50:27.013Z</time></trkpt><trkpt lat="40.255159830121144" lon="9.576610147117824"><ele>523.0</ele><time>2026-04-29T13:50:28.013Z</time></trkpt><trkpt lat="40.25523122395868" lon="9.576715386533202"><ele>523.0</ele><time>2026-04-29T13:50:29.013Z</time></trkpt><trkpt lat="40.25531112571601" lon="9.57680492295512"><ele>523.0</ele><time>2026-04-29T13:50:30.013Z</time></trkpt><trkpt lat="40.25539953185852" lon="9.5768841166171"><ele>523.0</ele><time>2026-04-29T13:50:31.013Z</time></trkpt><trkpt lat="40.255504457204964" lon="9.576939214246122"><ele>525.75</ele><time>2026-04-29T13:50:32.013Z</time></trkpt><trkpt lat="40.25562183931155" lon="9.576972963147119"><ele>528.5</ele><time>2026-04-29T13:50:33.013Z</time></trkpt><trkpt lat="40.2557395936467" lon="9.577005023558522"><ele>531.25</ele><time>2026-04-29T13:50:34.013Z</time></trkpt><trkpt lat="40.255868696481464" lon="9.577043364827913"><ele>534.0</ele><time>2026-04-29T13:50:35.013Z</time></trkpt><trkpt lat="40.255999886442105" lon="9.57709707281487"><ele>534.0</ele><time>2026-04-29T13:50:36.013Z</time></trkpt><trkpt lat="40.25611607690707" lon="9.577159533716033"><ele>534.0</ele><time>2026-04-29T13:50:37.013Z</time></trkpt><trkpt lat="40.25622972239892" lon="9.577214433942071"><ele>534.0</ele><time>2026-04-29T13:50:38.013Z</time></trkpt><trkpt lat="40.2563527946216" lon="9.577236021583873"><ele>534.0</ele><time>2026-04-29T13:50:39.013Z</time></trkpt><trkpt lat="40.25647936068434" lon="9.577242826062971"><ele>529.25</ele><time>2026-04-29T13:50:40.013Z</time></trkpt><trkpt lat="40.256605637888285" lon="9.57724520077691"><ele>524.5</ele><time>2026-04-29T13:50:41.013Z</time></trkpt><trkpt lat="40.256726020916666" lon="9.577249816919792"><ele>519.75</ele><time>2026-04-29T13:50:42.013Z</time></trkpt><trkpt lat="40.256838466717824" lon="9.577287307735084"><ele>515.0</ele><time>2026-04-29T13:50:43.013Z</time></trkpt><trkpt lat="40.25695439630801" lon="9.577293386425469"><ele>515.0</ele><time>2026-04-29T13:50:44.013Z</time></trkpt><trkpt lat="40.25707106126161" lon="9.577309493883247"><ele>515.0</ele><time>2026-04-29T13:50:45.013Z</time></trkpt><trkpt lat="40.25718727071689" lon="9.577335331759414"><ele>515.0</ele><time>2026-04-29T13:50:46.013Z</time></trkpt><trkpt lat="40.257302970686546" lon="9.577375504012272"><ele>515.0</ele><time>2026-04-29T13:50:47.013Z</time></trkpt><trkpt lat="40.25741832609904" lon="9.577428484997586"><ele>511.0</ele><time>2026-04-29T13:50:48.013Z</time></trkpt><trkpt lat="40.25753324773328" lon="9.577465816801359"><ele>507.0</ele><time>2026-04-29T13:50:49.013Z</time></trkpt><trkpt lat="40.25765435936852" lon="9.577489283237718"><ele>503.0</ele><time>2026-04-29T13:50:50.013Z</time></trkpt><trkpt lat="40.257779116908864" lon="9.577506971008082"><ele>499.0</ele><time>2026-04-29T13:50:51.013Z</time></trkpt><trkpt lat="40.25790059797093" lon="9.577526337020807"><ele>499.0</ele><time>2026-04-29T13:50:52.013Z</time></trkpt><trkpt lat="40.25802325960147" lon="9.577543815242471"><ele>499.0</ele><time>2026-04-29T13:50:53.013Z</time></trkpt><trkpt lat="40.25815249603796" lon="9.577562767295483"><ele>499.0</ele><time>2026-04-29T13:50:54.013Z</time></trkpt><trkpt lat="40.25827877687304" lon="9.577585417182377"><ele>499.0</ele><time>2026-04-29T13:50:55.013Z</time></trkpt><trkpt lat="40.25840694876852" lon="9.577609319528046"><ele>494.0</ele><time>2026-04-29T13:50:56.013Z</time></trkpt><trkpt lat="40.2585364241522" lon="9.577646039414153"><ele>489.0</ele><time>2026-04-29T13:50:57.013Z</time></trkpt><trkpt lat="40.258662892858766" lon="9.57768949560347"><ele>484.0</ele><time>2026-04-29T13:50:58.013Z</time></trkpt><trkpt lat="40.25877936888881" lon="9.57773454188433"><ele>479.0</ele><time>2026-04-29T13:50:59.013Z</time></trkpt><trkpt lat="40.258892689829416" lon="9.57776628290931"><ele>477.0</ele><time>2026-04-29T13:51:00.013Z</time></trkpt><trkpt lat="40.259010465671814" lon="9.577776982399001"><ele>475.0</ele><time>2026-04-29T13:51:01.013Z</time></trkpt><trkpt lat="40.25912381390676" lon="9.577767561986443"><ele>473.0</ele><time>2026-04-29T13:51:02.013Z</time></trkpt><trkpt lat="40.25923282674329" lon="9.577756248064508"><ele>471.0</ele><time>2026-04-29T13:51:03.013Z</time></trkpt><trkpt lat="40.25933227970737" lon="9.577762786499385"><ele>469.0</ele><time>2026-04-29T13:51:04.013Z</time></trkpt><trkpt lat="40.25942042405303" lon="9.57778997747312"><ele>469.0</ele><time>2026-04-29T13:51:05.013Z</time></trkpt><trkpt lat="40.25951713030398" lon="9.577833765617124"><ele>469.0</ele><time>2026-04-29T13:51:06.013Z</time></trkpt><trkpt lat="40.259598334784975" lon="9.577924451516534"><ele>469.0</ele><time>2026-04-29T13:51:07.014Z</time></trkpt><trkpt lat="40.25967999660053" lon="9.577995197211646"><ele>469.0</ele><time>2026-04-29T13:51:08.014Z</time></trkpt><trkpt lat="40.259728203386665" lon="9.578095348237703"><ele>469.0</ele><time>2026-04-29T13:51:09.014Z</time></trkpt><trkpt lat="40.25973221640622" lon="9.578227808329043"><ele>469.79999999999995</ele><time>2026-04-29T13:51:10.014Z</time></trkpt><trkpt lat="40.25976534448228" lon="9.578357194914162"><ele>470.59999999999997</ele><time>2026-04-29T13:51:11.014Z</time></trkpt><trkpt lat="40.25981887896559" lon="9.57846027449864"><ele>471.4</ele><time>2026-04-29T13:51:12.014Z</time></trkpt><trkpt lat="40.25988676316609" lon="9.578533230280563"><ele>472.2</ele><time>2026-04-29T13:51:13.014Z</time></trkpt><trkpt lat="40.25996354583688" lon="9.578581190017283"><ele>473.0</ele><time>2026-04-29T13:51:14.014Z</time></trkpt><trkpt lat="40.260052761956224" lon="9.578602601487969"><ele>473.0</ele><time>2026-04-29T13:51:15.014Z</time></trkpt><trkpt lat="40.260146981850205" lon="9.578639234881821"><ele>473.0</ele><time>2026-04-29T13:51:16.014Z</time></trkpt><trkpt lat="40.26025344561438" lon="9.578679157050821"><ele>473.0</ele><time>2026-04-29T13:51:17.014Z</time></trkpt><trkpt lat="40.26037081113849" lon="9.578724528114973"><ele>473.0</ele><time>2026-04-29T13:51:18.014Z</time></trkpt><trkpt lat="40.26049320139576" lon="9.578777031776127"><ele>476.75</ele><time>2026-04-29T13:51:19.014Z</time></trkpt><trkpt lat="40.26061854820495" lon="9.578821829422003"><ele>480.5</ele><time>2026-04-29T13:51:20.014Z</time></trkpt><trkpt lat="40.26073162107789" lon="9.578882244909229"><ele>484.25</ele><time>2026-04-29T13:51:21.014Z</time></trkpt><trkpt lat="40.260849409730554" lon="9.578942591255965"><ele>488.0</ele><time>2026-04-29T13:51:22.014Z</time></trkpt><trkpt lat="40.26096532274071" lon="9.579006197048463"><ele>488.0</ele><time>2026-04-29T13:51:23.014Z</time></trkpt><trkpt lat="40.261076815923836" lon="9.579076362593089"><ele>487.99999999999994</ele><time>2026-04-29T13:51:24.014Z</time></trkpt><trkpt lat="40.26118297520714" lon="9.579140415698577"><ele>487.99999999999994</ele><time>2026-04-29T13:51:25.014Z</time></trkpt><trkpt lat="40.26128267425327" lon="9.579177560173818"><ele>488.0</ele><time>2026-04-29T13:51:26.014Z</time></trkpt><trkpt lat="40.261382645664376" lon="9.579202893739929"><ele>488.0</ele><time>2026-04-29T13:51:27.014Z</time></trkpt><trkpt lat="40.26148138507205" lon="9.579229018196827"><ele>484.79999999999995</ele><time>2026-04-29T13:51:28.014Z</time></trkpt><trkpt lat="40.26157346222026" lon="9.579204302325223"><ele>481.59999999999997</ele><time>2026-04-29T13:51:29.014Z</time></trkpt><trkpt lat="40.26167133345259" lon="9.579193486867219"><ele>478.40000000000003</ele><time>2026-04-29T13:51:30.014Z</time></trkpt><trkpt lat="40.26177184673128" lon="9.579211697159918"><ele>475.20000000000005</ele><time>2026-04-29T13:51:31.014Z</time></trkpt><trkpt lat="40.26186935163933" lon="9.579250627291726"><ele>472.0</ele><time>2026-04-29T13:51:32.014Z</time></trkpt><trkpt lat="40.26198298443488" lon="9.579340801908751"><ele>472.0</ele><time>2026-04-29T13:51:33.014Z</time></trkpt><trkpt lat="40.26209618341217" lon="9.579423368588738"><ele>472.0</ele><time>2026-04-29T13:51:34.014Z</time></trkpt><trkpt lat="40.262204897830884" lon="9.579502811196042"><ele>472.0</ele><time>2026-04-29T13:51:35.014Z</time></trkpt><trkpt lat="40.26230178405577" lon="9.57957697921784"><ele>472.0</ele><time>2026-04-29T13:51:36.014Z</time></trkpt><trkpt lat="40.26241560597734" lon="9.579638940025255"><ele>477.5</ele><time>2026-04-29T13:51:37.014Z</time></trkpt><trkpt lat="40.262522042064184" lon="9.579687843032179"><ele>483.0</ele><time>2026-04-29T13:51:38.014Z</time></trkpt><trkpt lat="40.26263225304336" lon="9.579736441567075"><ele>488.5</ele><time>2026-04-29T13:51:39.014Z</time></trkpt><trkpt lat="40.262738554477444" lon="9.579778765891986"><ele>494.0</ele><time>2026-04-29T13:51:40.014Z</time></trkpt><trkpt lat="40.262850214256325" lon="9.579788696915326"><ele>494.0</ele><time>2026-04-29T13:51:41.014Z</time></trkpt><trkpt lat="40.26296398006458" lon="9.579752194713997"><ele>494.0</ele><time>2026-04-29T13:51:42.014Z</time></trkpt><trkpt lat="40.26309469939234" lon="9.579748047986055"><ele>494.0</ele><time>2026-04-29T13:51:43.013Z</time></trkpt><trkpt lat="40.263220138439046" lon="9.579756178225574"><ele>494.0</ele><time>2026-04-29T13:51:44.013Z</time></trkpt><trkpt lat="40.263344626270765" lon="9.579819086555437"><ele>492.25</ele><time>2026-04-29T13:51:45.013Z</time></trkpt><trkpt lat="40.26347447214873" lon="9.579823122364594"><ele>490.5</ele><time>2026-04-29T13:51:46.013Z</time></trkpt><trkpt lat="40.263596244022985" lon="9.579784263644175"><ele>488.75</ele><time>2026-04-29T13:51:47.013Z</time></trkpt><trkpt lat="40.2636958918176" lon="9.579745471436196"><ele>487.0</ele><time>2026-04-29T13:51:48.013Z</time></trkpt><trkpt lat="40.26379964974111" lon="9.579717035214642"><ele>487.0</ele><time>2026-04-29T13:51:49.013Z</time></trkpt><trkpt lat="40.26391995538226" lon="9.579731929012492"><ele>487.0</ele><time>2026-04-29T13:51:50.013Z</time></trkpt><trkpt lat="40.26404347151931" lon="9.579775059221603"><ele>487.0</ele><time>2026-04-29T13:51:51.013Z</time></trkpt><trkpt lat="40.26417256884727" lon="9.579823320297086"><ele>487.0</ele><time>2026-04-29T13:51:52.013Z</time></trkpt><trkpt lat="40.26428746696695" lon="9.579882208555167"><ele>485.40000000000003</ele><time>2026-04-29T13:51:53.013Z</time></trkpt><trkpt lat="40.26439438171962" lon="9.579922113569497"><ele>483.80000000000007</ele><time>2026-04-29T13:51:54.013Z</time></trkpt><trkpt lat="40.26449494056205" lon="9.579959147775583"><ele>482.2</ele><time>2026-04-29T13:51:55.014Z</time></trkpt><trkpt lat="40.26460106922661" lon="9.579978796942155"><ele>480.6</ele><time>2026-04-29T13:51:56.013Z</time></trkpt><trkpt lat="40.264710073992305" lon="9.579950089497375"><ele>479.0</ele><time>2026-04-29T13:51:57.013Z</time></trkpt><trkpt lat="40.26480990454429" lon="9.57990372268003"><ele>478.4</ele><time>2026-04-29T13:51:58.013Z</time></trkpt><trkpt lat="40.264919976550686" lon="9.579850992968163"><ele>477.79999999999995</ele><time>2026-04-29T13:51:59.013Z</time></trkpt><trkpt lat="40.265020626530095" lon="9.579803310385374"><ele>477.20000000000005</ele><time>2026-04-29T13:52:00.013Z</time></trkpt><trkpt lat="40.265105958619976" lon="9.579768627481583"><ele>476.6</ele><time>2026-04-29T13:52:01.013Z</time></trkpt><trkpt lat="40.265183917424366" lon="9.579755314871505"><ele>476.0</ele><time>2026-04-29T13:52:02.013Z</time></trkpt><trkpt lat="40.26526184952146" lon="9.57978988207453"><ele>476.0</ele><time>2026-04-29T13:52:03.013Z</time></trkpt><trkpt lat="40.265332532453186" lon="9.579863242179295"><ele>476.0</ele><time>2026-04-29T13:52:04.013Z</time></trkpt><trkpt lat="40.265405385388156" lon="9.579968279817589"><ele>476.0</ele><time>2026-04-29T13:52:05.013Z</time></trkpt><trkpt lat="40.26548292089791" lon="9.580086808133833"><ele>476.0</ele><time>2026-04-29T13:52:06.013Z</time></trkpt><trkpt lat="40.265565406027015" lon="9.58020361366066"><ele>476.0</ele><time>2026-04-29T13:52:07.013Z</time></trkpt><trkpt lat="40.2656490890356" lon="9.580334947710242"><ele>476.75</ele><time>2026-04-29T13:52:08.013Z</time></trkpt><trkpt lat="40.26573360792068" lon="9.580435752452674"><ele>477.5</ele><time>2026-04-29T13:52:09.013Z</time></trkpt><trkpt lat="40.265815193754364" lon="9.580557128290915"><ele>478.25</ele><time>2026-04-29T13:52:10.013Z</time></trkpt><trkpt lat="40.26590767322989" lon="9.580670859546158"><ele>479.0</ele><time>2026-04-29T13:52:11.013Z</time></trkpt><trkpt lat="40.26600171821119" lon="9.580765174309184"><ele>479.0</ele><time>2026-04-29T13:52:12.013Z</time></trkpt><trkpt lat="40.26610273705959" lon="9.580847349981044"><ele>479.0</ele><time>2026-04-29T13:52:13.013Z</time></trkpt><trkpt lat="40.26621913967381" lon="9.580917895293382"><ele>479.0</ele><time>2026-04-29T13:52:14.013Z</time></trkpt><trkpt lat="40.26633311548045" lon="9.580971059156202"><ele>479.0</ele><time>2026-04-29T13:52:15.013Z</time></trkpt><trkpt lat="40.26644883438704" lon="9.58104264770065"><ele>481.0</ele><time>2026-04-29T13:52:16.013Z</time></trkpt><trkpt lat="40.26660273310627" lon="9.581128220988592"><ele>483.0</ele><time>2026-04-29T13:52:17.013Z</time></trkpt><trkpt lat="40.266761794544124" lon="9.58124440426385"><ele>485.0</ele><time>2026-04-29T13:52:18.013Z</time></trkpt><trkpt lat="40.26685628702707" lon="9.581435649733658"><ele>485.0</ele><time>2026-04-29T13:52:19.013Z</time></trkpt><trkpt lat="40.2667993199077" lon="9.58133944028334"><ele>485.0</ele><time>2026-04-29T13:52:20.013Z</time></trkpt><trkpt lat="40.2668775254873" lon="9.581471394213844"><ele>485.0</ele><time>2026-04-29T13:52:21.013Z</time></trkpt><trkpt lat="40.26697378329575" lon="9.581580445244494"><ele>485.0</ele><time>2026-04-29T13:52:22.013Z</time></trkpt><trkpt lat="40.26706652046834" lon="9.58169652069473"><ele>485.0</ele><time>2026-04-29T13:52:23.013Z</time></trkpt><trkpt lat="40.267172702088246" lon="9.581796759543108"><ele>485.0</ele><time>2026-04-29T13:52:24.013Z</time></trkpt><trkpt lat="40.26728368032004" lon="9.581890372777837"><ele>485.0</ele><time>2026-04-29T13:52:25.013Z</time></trkpt><trkpt lat="40.26739804731261" lon="9.581985068528361"><ele>485.0</ele><time>2026-04-29T13:52:26.013Z</time></trkpt><trkpt lat="40.26751004178167" lon="9.582078295385296"><ele>484.5</ele><time>2026-04-29T13:52:27.013Z</time></trkpt><trkpt lat="40.26762147798858" lon="9.582179320674314"><ele>484.0</ele><time>2026-04-29T13:52:28.013Z</time></trkpt><trkpt lat="40.26772878845667" lon="9.582270901579129"><ele>483.5</ele><time>2026-04-29T13:52:29.013Z</time></trkpt><trkpt lat="40.26783585931573" lon="9.582362648487521"><ele>483.0</ele><time>2026-04-29T13:52:30.013Z</time></trkpt><trkpt lat="40.26794448128571" lon="9.582458417717229"><ele>483.0</ele><time>2026-04-29T13:52:31.013Z</time></trkpt><trkpt lat="40.26805666524575" lon="9.582550944798173"><ele>483.0</ele><time>2026-04-29T13:52:32.013Z</time></trkpt><trkpt lat="40.268165014698035" lon="9.582641723501165"><ele>483.0</ele><time>2026-04-29T13:52:33.014Z</time></trkpt><trkpt lat="40.2682693115239" lon="9.582734933583906"><ele>483.0</ele><time>2026-04-29T13:52:34.014Z</time></trkpt><trkpt lat="40.26836136226918" lon="9.58284260927866"><ele>483.59999999999997</ele><time>2026-04-29T13:52:35.014Z</time></trkpt><trkpt lat="40.268436033816826" lon="9.582946466424406"><ele>484.19999999999993</ele><time>2026-04-29T13:52:36.014Z</time></trkpt><trkpt lat="40.26850214858655" lon="9.583026937898182"><ele>484.8</ele><time>2026-04-29T13:52:37.014Z</time></trkpt><trkpt lat="40.26857238645244" lon="9.58308179906805"><ele>485.4</ele><time>2026-04-29T13:52:38.014Z</time></trkpt><trkpt lat="40.268655912281645" lon="9.583087719971463"><ele>486.0</ele><time>2026-04-29T13:52:39.014Z</time></trkpt><trkpt lat="40.268745565911296" lon="9.583078640458407"><ele>486.0</ele><time>2026-04-29T13:52:40.014Z</time></trkpt><trkpt lat="40.26884751846941" lon="9.583069427216824"><ele>486.0</ele><time>2026-04-29T13:52:41.014Z</time></trkpt><trkpt lat="40.268933911222945" lon="9.58307625903293"><ele>486.0</ele><time>2026-04-29T13:52:42.014Z</time></trkpt><trkpt lat="40.26900255616755" lon="9.58311687211608"><ele>486.0</ele><time>2026-04-29T13:52:43.014Z</time></trkpt><trkpt lat="40.269068222342234" lon="9.583210559910196"><ele>486.0</ele><time>2026-04-29T13:52:44.014Z</time></trkpt><trkpt lat="40.269121383668505" lon="9.583313753331343"><ele>482.3333333333333</ele><time>2026-04-29T13:52:45.014Z</time></trkpt><trkpt lat="40.26916858550005" lon="9.583420999672136"><ele>478.66666666666663</ele><time>2026-04-29T13:52:46.014Z</time></trkpt><trkpt lat="40.26922387977974" lon="9.583505969943939"><ele>475.0</ele><time>2026-04-29T13:52:47.014Z</time></trkpt><trkpt lat="40.26928595624729" lon="9.583559207789424"><ele>471.3333333333333</ele><time>2026-04-29T13:52:48.014Z</time></trkpt><trkpt lat="40.26937021288328" lon="9.583592782443946"><ele>467.66666666666663</ele><time>2026-04-29T13:52:49.014Z</time></trkpt><trkpt lat="40.269455734136685" lon="9.583608843178853"><ele>464.0</ele><time>2026-04-29T13:52:50.014Z</time></trkpt><trkpt lat="40.26953904531942" lon="9.583639474912719"><ele>464.2</ele><time>2026-04-29T13:52:51.014Z</time></trkpt><trkpt lat="40.269628003463154" lon="9.58369775144319"><ele>464.4</ele><time>2026-04-29T13:52:52.014Z</time></trkpt><trkpt lat="40.269705969447074" lon="9.583789993519456"><ele>464.6</ele><time>2026-04-29T13:52:53.014Z</time></trkpt><trkpt lat="40.26978258045936" lon="9.58389375247664"><ele>464.8</ele><time>2026-04-29T13:52:54.014Z</time></trkpt><trkpt lat="40.26984463763759" lon="9.584011488663165"><ele>465.0</ele><time>2026-04-29T13:52:55.014Z</time></trkpt><trkpt lat="40.26991028252145" lon="9.584131582389821"><ele>465.0</ele><time>2026-04-29T13:52:56.014Z</time></trkpt><trkpt lat="40.26998636741703" lon="9.584245646704794"><ele>465.0</ele><time>2026-04-29T13:52:57.014Z</time></trkpt><trkpt lat="40.27006836488538" lon="9.58435413821038"><ele>465.0</ele><time>2026-04-29T13:52:58.014Z</time></trkpt><trkpt lat="40.2701605968579" lon="9.584465373801063"><ele>465.0</ele><time>2026-04-29T13:52:59.014Z</time></trkpt><trkpt lat="40.270237600634275" lon="9.58456895940086"><ele>462.4</ele><time>2026-04-29T13:53:00.014Z</time></trkpt><trkpt lat="40.27033692763486" lon="9.584653196092564"><ele>459.8</ele><time>2026-04-29T13:53:01.014Z</time></trkpt><trkpt lat="40.27042601612194" lon="9.584728293337132"><ele>457.20000000000005</ele><time>2026-04-29T13:53:02.014Z</time></trkpt><trkpt lat="40.270512127232685" lon="9.584791038219038"><ele>454.6</ele><time>2026-04-29T13:53:03.014Z</time></trkpt><trkpt lat="40.27059467793241" lon="9.584849391317281"><ele>452.0</ele><time>2026-04-29T13:53:04.014Z</time></trkpt><trkpt lat="40.270664620850134" lon="9.584935261259833"><ele>452.0</ele><time>2026-04-29T13:53:05.014Z</time></trkpt><trkpt lat="40.27072393615629" lon="9.585040763978485"><ele>452.00000000000006</ele><time>2026-04-29T13:53:06.014Z</time></trkpt><trkpt lat="40.270770772014984" lon="9.585161885340982"><ele>452.00000000000006</ele><time>2026-04-29T13:53:07.014Z</time></trkpt><trkpt lat="40.27080686008543" lon="9.585297215077683"><ele>452.0</ele><time>2026-04-29T13:53:08.014Z</time></trkpt><trkpt lat="40.27084934418298" lon="9.585422742844305"><ele>452.0</ele><time>2026-04-29T13:53:09.014Z</time></trkpt><trkpt lat="40.27091094028399" lon="9.58554056270531"><ele>457.5</ele><time>2026-04-29T13:53:10.014Z</time></trkpt><trkpt lat="40.27098948303059" lon="9.585659956187204"><ele>463.0</ele><time>2026-04-29T13:53:11.014Z</time></trkpt><trkpt lat="40.271057660460194" lon="9.58578484873207"><ele>468.5</ele><time>2026-04-29T13:53:12.014Z</time></trkpt><trkpt lat="40.2711028110611" lon="9.585923167653934"><ele>474.0</ele><time>2026-04-29T13:53:13.014Z</time></trkpt><trkpt lat="40.27114738914103" lon="9.586071414948298"><ele>477.25</ele><time>2026-04-29T13:53:14.014Z</time></trkpt><trkpt lat="40.27117660229785" lon="9.586233839519254"><ele>480.5</ele><time>2026-04-29T13:53:15.014Z</time></trkpt><trkpt lat="40.271205513406116" lon="9.586394448463446"><ele>483.75</ele><time>2026-04-29T13:53:16.014Z</time></trkpt><trkpt lat="40.271246492135745" lon="9.586551740330776"><ele>487.0</ele><time>2026-04-29T13:53:17.014Z</time></trkpt><trkpt lat="40.271293066552026" lon="9.586712601051255"><ele>487.0</ele><time>2026-04-29T13:53:18.014Z</time></trkpt><trkpt lat="40.271357107085045" lon="9.586862510259614"><ele>487.0</ele><time>2026-04-29T13:53:19.014Z</time></trkpt><trkpt lat="40.271413212893215" lon="9.586998690168718"><ele>487.0</ele><time>2026-04-29T13:53:20.014Z</time></trkpt><trkpt lat="40.271475485850075" lon="9.587116680587728"><ele>487.0</ele><time>2026-04-29T13:53:21.014Z</time></trkpt><trkpt lat="40.271540584540915" lon="9.587235837974914"><ele>482.75</ele><time>2026-04-29T13:53:22.014Z</time></trkpt><trkpt lat="40.271615936214545" lon="9.587343588292866"><ele>478.5</ele><time>2026-04-29T13:53:23.014Z</time></trkpt><trkpt lat="40.27170241619894" lon="9.587416854306214"><ele>474.25</ele><time>2026-04-29T13:53:24.014Z</time></trkpt><trkpt lat="40.27180461056421" lon="9.587471896156094"><ele>470.0</ele><time>2026-04-29T13:53:25.014Z</time></trkpt><trkpt lat="40.27192993505311" lon="9.587503877648647"><ele>470.0</ele><time>2026-04-29T13:53:26.014Z</time></trkpt><trkpt lat="40.27204366487718" lon="9.58754866388766"><ele>470.0</ele><time>2026-04-29T13:53:27.014Z</time></trkpt><trkpt lat="40.27213684867882" lon="9.587623843174612"><ele>470.0</ele><time>2026-04-29T13:53:28.014Z</time></trkpt><trkpt lat="40.27223576019096" lon="9.587704359183766"><ele>470.0</ele><time>2026-04-29T13:53:29.014Z</time></trkpt><trkpt lat="40.272312612026006" lon="9.58780573248657"><ele>468.66666666666663</ele><time>2026-04-29T13:53:30.014Z</time></trkpt><trkpt lat="40.27237146099106" lon="9.587898697481478"><ele>467.3333333333333</ele><time>2026-04-29T13:53:31.014Z</time></trkpt><trkpt lat="40.27241269710078" lon="9.587997345880405"><ele>466.0</ele><time>2026-04-29T13:53:32.014Z</time></trkpt><trkpt lat="40.272437077731894" lon="9.588103594236204"><ele>464.66666666666663</ele><time>2026-04-29T13:53:33.014Z</time></trkpt><trkpt lat="40.27244049645413" lon="9.58821719076108"><ele>463.3333333333333</ele><time>2026-04-29T13:53:34.014Z</time></trkpt><trkpt lat="40.27243922032932" lon="9.588324167555957"><ele>462.0</ele><time>2026-04-29T13:53:35.014Z</time></trkpt><trkpt lat="40.27245825431551" lon="9.588422053405356"><ele>462.0</ele><time>2026-04-29T13:53:36.014Z</time></trkpt><trkpt lat="40.272486129862386" lon="9.588501298044774"><ele>462.0</ele><time>2026-04-29T13:53:37.014Z</time></trkpt><trkpt lat="40.27254102397957" lon="9.588586264332426"><ele>462.0</ele><time>2026-04-29T13:53:38.014Z</time></trkpt><trkpt lat="40.272610064108136" lon="9.588655342481596"><ele>462.0</ele><time>2026-04-29T13:53:39.014Z</time></trkpt><trkpt lat="40.272690999278105" lon="9.588704513111669"><ele>462.0</ele><time>2026-04-29T13:53:40.014Z</time></trkpt><trkpt lat="40.27277222191551" lon="9.588756808244717"><ele>462.0</ele><time>2026-04-29T13:53:41.014Z</time></trkpt><trkpt lat="40.27285625671208" lon="9.588817169999182"><ele>466.20000000000005</ele><time>2026-04-29T13:53:42.014Z</time></trkpt><trkpt lat="40.27292964468186" lon="9.588897101001683"><ele>470.40000000000003</ele><time>2026-04-29T13:53:43.014Z</time></trkpt><trkpt lat="40.27299445044709" lon="9.58899328541497"><ele>474.59999999999997</ele><time>2026-04-29T13:53:44.014Z</time></trkpt><trkpt lat="40.27303479851033" lon="9.589110898332407"><ele>478.79999999999995</ele><time>2026-04-29T13:53:45.014Z</time></trkpt><trkpt lat="40.2730718219081" lon="9.589239511960134"><ele>483.0</ele><time>2026-04-29T13:53:46.014Z</time></trkpt><trkpt lat="40.27309242894439" lon="9.589382480665284"><ele>477.79999999999995</ele><time>2026-04-29T13:53:47.014Z</time></trkpt><trkpt lat="40.27311511203301" lon="9.589519002044423"><ele>472.59999999999997</ele><time>2026-04-29T13:53:48.013Z</time></trkpt><trkpt lat="40.27313893439412" lon="9.58965052467911"><ele>467.40000000000003</ele><time>2026-04-29T13:53:49.013Z</time></trkpt><trkpt lat="40.27315132792274" lon="9.589790163458984"><ele>462.20000000000005</ele><time>2026-04-29T13:53:50.013Z</time></trkpt><trkpt lat="40.27317435105303" lon="9.58992410284668"><ele>457.0</ele><time>2026-04-29T13:53:51.014Z</time></trkpt><trkpt lat="40.273193437703476" lon="9.590056714470597"><ele>457.0</ele><time>2026-04-29T13:53:52.013Z</time></trkpt><trkpt lat="40.2732271018348" lon="9.590184226837046"><ele>457.00000000000006</ele><time>2026-04-29T13:53:53.013Z</time></trkpt><trkpt lat="40.27327445051436" lon="9.590313311719003"><ele>457.00000000000006</ele><time>2026-04-29T13:53:54.014Z</time></trkpt><trkpt lat="40.27332911806473" lon="9.590441828264039"><ele>457.0</ele><time>2026-04-29T13:53:55.014Z</time></trkpt><trkpt lat="40.273401007875464" lon="9.590550200203177"><ele>457.0</ele><time>2026-04-29T13:53:56.014Z</time></trkpt><trkpt lat="40.273478671955935" lon="9.590662925468928"><ele>461.0</ele><time>2026-04-29T13:53:57.013Z</time></trkpt><trkpt lat="40.273571433315375" lon="9.590771968977787"><ele>465.0</ele><time>2026-04-29T13:53:58.013Z</time></trkpt><trkpt lat="40.273658071544155" lon="9.590883151842263"><ele>469.0</ele><time>2026-04-29T13:53:59.013Z</time></trkpt><trkpt lat="40.27373638237849" lon="9.590997019594095"><ele>473.0</ele><time>2026-04-29T13:54:00.013Z</time></trkpt><trkpt lat="40.27381699712558" lon="9.591113405378016"><ele>471.75</ele><time>2026-04-29T13:54:01.013Z</time></trkpt><trkpt lat="40.273895794551144" lon="9.591225903973198"><ele>470.5</ele><time>2026-04-29T13:54:02.013Z</time></trkpt><trkpt lat="40.27397173839475" lon="9.591334469517744"><ele>469.25</ele><time>2026-04-29T13:54:03.013Z</time></trkpt><trkpt lat="40.274055328345156" lon="9.591437166719656"><ele>468.0</ele><time>2026-04-29T13:54:04.013Z</time></trkpt><trkpt lat="40.274140517864076" lon="9.59152719537211"><ele>468.0</ele><time>2026-04-29T13:54:05.013Z</time></trkpt><trkpt lat="40.27422852811153" lon="9.591616603819867"><ele>468.0</ele><time>2026-04-29T13:54:06.013Z</time></trkpt><trkpt lat="40.27432613043" lon="9.591700026677293"><ele>468.0</ele><time>2026-04-29T13:54:07.013Z</time></trkpt><trkpt lat="40.274435932991274" lon="9.591779784797572"><ele>468.0</ele><time>2026-04-29T13:54:08.013Z</time></trkpt><trkpt lat="40.27453043325667" lon="9.591871666317743"><ele>468.0</ele><time>2026-04-29T13:54:09.013Z</time></trkpt><trkpt lat="40.274635561828184" lon="9.591964082317308"><ele>468.0</ele><time>2026-04-29T13:54:10.013Z</time></trkpt><trkpt lat="40.27472553163079" lon="9.592047599122406"><ele>468.0</ele><time>2026-04-29T13:54:11.013Z</time></trkpt><trkpt lat="40.27482132499583" lon="9.592116826067972"><ele>468.0</ele><time>2026-04-29T13:54:12.013Z</time></trkpt><trkpt lat="40.27492130410974" lon="9.592183470330864"><ele>469.59999999999997</ele><time>2026-04-29T13:54:13.013Z</time></trkpt><trkpt lat="40.27500487923726" lon="9.592248112413875"><ele>471.19999999999993</ele><time>2026-04-29T13:54:14.013Z</time></trkpt><trkpt lat="40.27509935320322" lon="9.592285190280881"><ele>472.8</ele><time>2026-04-29T13:54:15.013Z</time></trkpt><trkpt lat="40.27520310540388" lon="9.592309809781428"><ele>474.4</ele><time>2026-04-29T13:54:16.013Z</time></trkpt><trkpt lat="40.27530492298393" lon="9.592318935154612"><ele>476.0</ele><time>2026-04-29T13:54:17.014Z</time></trkpt><trkpt lat="40.27540785171584" lon="9.592333509010208"><ele>476.0</ele><time>2026-04-29T13:54:18.014Z</time></trkpt><trkpt lat="40.275508369207216" lon="9.59233493218677"><ele>476.0</ele><time>2026-04-29T13:54:19.014Z</time></trkpt><trkpt lat="40.27561916353508" lon="9.592323578931023"><ele>476.0</ele><time>2026-04-29T13:54:20.014Z</time></trkpt><trkpt lat="40.27574001642799" lon="9.592302340719177"><ele>476.0</ele><time>2026-04-29T13:54:21.014Z</time></trkpt><trkpt lat="40.27585984699643" lon="9.592295836118033"><ele>475.0</ele><time>2026-04-29T13:54:22.014Z</time></trkpt><trkpt lat="40.275983392570346" lon="9.592287157879243"><ele>474.0</ele><time>2026-04-29T13:54:23.014Z</time></trkpt><trkpt lat="40.27610692937362" lon="9.592278103618833"><ele>473.0</ele><time>2026-04-29T13:54:24.014Z</time></trkpt><trkpt lat="40.276233494897745" lon="9.59225430118868"><ele>472.0</ele><time>2026-04-29T13:54:25.014Z</time></trkpt><trkpt lat="40.27636067958985" lon="9.592264232164514"><ele>472.0</ele><time>2026-04-29T13:54:26.014Z</time></trkpt><trkpt lat="40.27648987169249" lon="9.592226718547954"><ele>472.0</ele><time>2026-04-29T13:54:27.014Z</time></trkpt><trkpt lat="40.276627098306385" lon="9.592183484629967"><ele>472.0</ele><time>2026-04-29T13:54:28.014Z</time></trkpt><trkpt lat="40.2767582038596" lon="9.592147251446962"><ele>472.0</ele><time>2026-04-29T13:54:29.014Z</time></trkpt><trkpt lat="40.276891867371006" lon="9.592113219889955"><ele>472.0</ele><time>2026-04-29T13:54:30.014Z</time></trkpt><trkpt lat="40.27702945708017" lon="9.59208371873817"><ele>472.0</ele><time>2026-04-29T13:54:31.014Z</time></trkpt><trkpt lat="40.27715860737882" lon="9.592050085354144"><ele>472.0</ele><time>2026-04-29T13:54:32.014Z</time></trkpt><trkpt lat="40.27728934826027" lon="9.592016917983385"><ele>472.0</ele><time>2026-04-29T13:54:33.014Z</time></trkpt><trkpt lat="40.277420504465546" lon="9.59198276790498"><ele>464.25</ele><time>2026-04-29T13:54:34.014Z</time></trkpt><trkpt lat="40.27755217027393" lon="9.591951069939785"><ele>456.5</ele><time>2026-04-29T13:54:35.014Z</time></trkpt><trkpt lat="40.27768462367755" lon="9.59190353023386"><ele>448.75</ele><time>2026-04-29T13:54:36.014Z</time></trkpt><trkpt lat="40.277813807722175" lon="9.591869142266004"><ele>441.0</ele><time>2026-04-29T13:54:37.014Z</time></trkpt><trkpt lat="40.27795047293884" lon="9.591835813213669"><ele>441.0</ele><time>2026-04-29T13:54:38.014Z</time></trkpt><trkpt lat="40.27808096091079" lon="9.591795012908605"><ele>441.0</ele><time>2026-04-29T13:54:39.014Z</time></trkpt><trkpt lat="40.27821055290237" lon="9.59175690709302"><ele>441.0</ele><time>2026-04-29T13:54:40.014Z</time></trkpt><trkpt lat="40.27834166117193" lon="9.591717648416747"><ele>441.0</ele><time>2026-04-29T13:54:41.014Z</time></trkpt><trkpt lat="40.27847570625269" lon="9.59168898193383"><ele>442.25</ele><time>2026-04-29T13:54:42.014Z</time></trkpt><trkpt lat="40.27860172808228" lon="9.591649322082192"><ele>443.5</ele><time>2026-04-29T13:54:43.014Z</time></trkpt><trkpt lat="40.278732408533" lon="9.591612677642178"><ele>444.75</ele><time>2026-04-29T13:54:44.014Z</time></trkpt><trkpt lat="40.278864812778885" lon="9.59160903053091"><ele>446.0</ele><time>2026-04-29T13:54:45.014Z</time></trkpt><trkpt lat="40.27899318929368" lon="9.59158469448246"><ele>449.75</ele><time>2026-04-29T13:54:46.014Z</time></trkpt><trkpt lat="40.27912404477932" lon="9.59155160677654"><ele>453.5</ele><time>2026-04-29T13:54:47.014Z</time></trkpt><trkpt lat="40.279257815844915" lon="9.591534979662644"><ele>457.25</ele><time>2026-04-29T13:54:48.014Z</time></trkpt><trkpt lat="40.27938979698346" lon="9.59151176900548"><ele>461.0</ele><time>2026-04-29T13:54:49.014Z</time></trkpt><trkpt lat="40.27952594644985" lon="9.591491769843765"><ele>461.0</ele><time>2026-04-29T13:54:50.014Z</time></trkpt><trkpt lat="40.27966041479943" lon="9.591470064463914"><ele>461.0</ele><time>2026-04-29T13:54:51.014Z</time></trkpt><trkpt lat="40.27979855297102" lon="9.591455262493492"><ele>461.0</ele><time>2026-04-29T13:54:52.014Z</time></trkpt><trkpt lat="40.27993259668424" lon="9.591442196244031"><ele>461.0</ele><time>2026-04-29T13:54:53.014Z</time></trkpt><trkpt lat="40.28006956025642" lon="9.591425738420504"><ele>461.25</ele><time>2026-04-29T13:54:54.014Z</time></trkpt><trkpt lat="40.28020566563587" lon="9.591403887087385"><ele>461.5</ele><time>2026-04-29T13:54:55.014Z</time></trkpt><trkpt lat="40.28033437599695" lon="9.591378691678484"><ele>461.75</ele><time>2026-04-29T13:54:56.014Z</time></trkpt><trkpt lat="40.28046478674068" lon="9.591357389196904"><ele>462.0</ele><time>2026-04-29T13:54:57.014Z</time></trkpt><trkpt lat="40.280593708958456" lon="9.59132166857118"><ele>463.25</ele><time>2026-04-29T13:54:58.014Z</time></trkpt><trkpt lat="40.28072343879748" lon="9.591274428549475"><ele>464.5</ele><time>2026-04-29T13:54:59.014Z</time></trkpt><trkpt lat="40.28085042374491" lon="9.591221325039475"><ele>465.75</ele><time>2026-04-29T13:55:00.014Z</time></trkpt><trkpt lat="40.280981249091525" lon="9.591174852514301"><ele>467.0</ele><time>2026-04-29T13:55:01.014Z</time></trkpt><trkpt lat="40.28111222250822" lon="9.591140594459523"><ele>459.25</ele><time>2026-04-29T13:55:02.014Z</time></trkpt><trkpt lat="40.28124426107895" lon="9.591116852481546"><ele>451.5</ele><time>2026-04-29T13:55:03.014Z</time></trkpt><trkpt lat="40.281379554282594" lon="9.591098722010408"><ele>443.75</ele><time>2026-04-29T13:55:04.014Z</time></trkpt><trkpt lat="40.281516065310505" lon="9.591083368978873"><ele>436.0</ele><time>2026-04-29T13:55:05.014Z</time></trkpt><trkpt lat="40.28165370154825" lon="9.591078535837118"><ele>435.75</ele><time>2026-04-29T13:55:06.014Z</time></trkpt><trkpt lat="40.28178579248235" lon="9.591075034092425"><ele>435.5</ele><time>2026-04-29T13:55:07.014Z</time></trkpt><trkpt lat="40.2819075963927" lon="9.591073973023308"><ele>435.25</ele><time>2026-04-29T13:55:08.014Z</time></trkpt><trkpt lat="40.282022279869174" lon="9.591074403159828"><ele>435.0</ele><time>2026-04-29T13:55:09.014Z</time></trkpt><trkpt lat="40.28213576779987" lon="9.591080733359714"><ele>435.0</ele><time>2026-04-29T13:55:10.014Z</time></trkpt><trkpt lat="40.28224581123623" lon="9.591087721861157"><ele>435.0</ele><time>2026-04-29T13:55:11.014Z</time></trkpt><trkpt lat="40.282353002101964" lon="9.591121098431195"><ele>435.0</ele><time>2026-04-29T13:55:12.014Z</time></trkpt><trkpt lat="40.28246303391244" lon="9.59115655825428"><ele>435.0</ele><time>2026-04-29T13:55:13.014Z</time></trkpt><trkpt lat="40.282563501078606" lon="9.591206087035607"><ele>435.0</ele><time>2026-04-29T13:55:14.014Z</time></trkpt><trkpt lat="40.28265626700123" lon="9.591268799149203"><ele>442.25</ele><time>2026-04-29T13:55:15.014Z</time></trkpt><trkpt lat="40.28276187081989" lon="9.591292760778785"><ele>449.5</ele><time>2026-04-29T13:55:16.014Z</time></trkpt><trkpt lat="40.28287479318391" lon="9.591275038417946"><ele>456.75</ele><time>2026-04-29T13:55:17.014Z</time></trkpt><trkpt lat="40.28298072814634" lon="9.591217087135835"><ele>464.0</ele><time>2026-04-29T13:55:18.014Z</time></trkpt><trkpt lat="40.28310031608551" lon="9.591194287427177"><ele>464.0</ele><time>2026-04-29T13:55:19.014Z</time></trkpt><trkpt lat="40.28320279726853" lon="9.59114510567614"><ele>464.0</ele><time>2026-04-29T13:55:20.014Z</time></trkpt><trkpt lat="40.28331461371731" lon="9.59113881932142"><ele>464.0</ele><time>2026-04-29T13:55:21.014Z</time></trkpt><trkpt lat="40.283444380472424" lon="9.591154023467698"><ele>464.0</ele><time>2026-04-29T13:55:22.014Z</time></trkpt><trkpt lat="40.28357961761699" lon="9.591189364233136"><ele>464.0</ele><time>2026-04-29T13:55:23.014Z</time></trkpt><trkpt lat="40.283700871603884" lon="9.591275929698128"><ele>464.0</ele><time>2026-04-29T13:55:24.014Z</time></trkpt><trkpt lat="40.283810006773855" lon="9.591321138272704"><ele>464.0</ele><time>2026-04-29T13:55:25.014Z</time></trkpt><trkpt lat="40.2839223874555" lon="9.591363373205779"><ele>464.0</ele><time>2026-04-29T13:55:26.014Z</time></trkpt><trkpt lat="40.28402658662025" lon="9.591400675207577"><ele>461.4</ele><time>2026-04-29T13:55:27.014Z</time></trkpt><trkpt lat="40.28412834714941" lon="9.591435487051521"><ele>458.79999999999995</ele><time>2026-04-29T13:55:28.014Z</time></trkpt><trkpt lat="40.28422320631615" lon="9.59146944081024"><ele>456.20000000000005</ele><time>2026-04-29T13:55:29.014Z</time></trkpt><trkpt lat="40.284309752620096" lon="9.591488765693958"><ele>453.6</ele><time>2026-04-29T13:55:30.014Z</time></trkpt><trkpt lat="40.284404812351596" lon="9.591499209882496"><ele>451.0</ele><time>2026-04-29T13:55:31.014Z</time></trkpt><trkpt lat="40.28450051954328" lon="9.591492976381268"><ele>451.0</ele><time>2026-04-29T13:55:32.014Z</time></trkpt><trkpt lat="40.284582173607795" lon="9.591455192052189"><ele>451.0</ele><time>2026-04-29T13:55:33.014Z</time></trkpt><trkpt lat="40.28466840695429" lon="9.591401474690773"><ele>451.0</ele><time>2026-04-29T13:55:34.014Z</time></trkpt><trkpt lat="40.28476518637689" lon="9.591353351290131"><ele>451.0</ele><time>2026-04-29T13:55:35.014Z</time></trkpt><trkpt lat="40.28483956782053" lon="9.591256052311463"><ele>451.0</ele><time>2026-04-29T13:55:36.014Z</time></trkpt><trkpt lat="40.284895528690654" lon="9.5911496489768"><ele>447.6</ele><time>2026-04-29T13:55:37.014Z</time></trkpt><trkpt lat="40.28496441404085" lon="9.591050047570626"><ele>444.20000000000005</ele><time>2026-04-29T13:55:38.014Z</time></trkpt><trkpt lat="40.28502342668778" lon="9.590952004986372"><ele>440.79999999999995</ele><time>2026-04-29T13:55:39.014Z</time></trkpt><trkpt lat="40.28509080772942" lon="9.590848306433278"><ele>437.4</ele><time>2026-04-29T13:55:40.014Z</time></trkpt><trkpt lat="40.28515584077817" lon="9.590746692297506"><ele>434.0</ele><time>2026-04-29T13:55:41.014Z</time></trkpt><trkpt lat="40.28523658267677" lon="9.590669712965731"><ele>433.99999999999994</ele><time>2026-04-29T13:55:42.014Z</time></trkpt><trkpt lat="40.28529810457956" lon="9.590581021344466"><ele>434.0</ele><time>2026-04-29T13:55:43.014Z</time></trkpt><trkpt lat="40.28535657934791" lon="9.590494295956427"><ele>434.0</ele><time>2026-04-29T13:55:44.014Z</time></trkpt><trkpt lat="40.28541176099651" lon="9.590411141406861"><ele>434.0</ele><time>2026-04-29T13:55:45.014Z</time></trkpt><trkpt lat="40.28546561244623" lon="9.590329178556477"><ele>433.99999999999994</ele><time>2026-04-29T13:55:46.014Z</time></trkpt><trkpt lat="40.2855065778727" lon="9.590233872746563"><ele>434.0</ele><time>2026-04-29T13:55:47.014Z</time></trkpt><trkpt lat="40.28553957973277" lon="9.590132036204059"><ele>434.3333333333333</ele><time>2026-04-29T13:55:48.015Z</time></trkpt><trkpt lat="40.28556760381363" lon="9.590033029795851"><ele>434.66666666666663</ele><time>2026-04-29T13:55:49.015Z</time></trkpt><trkpt lat="40.285586261199356" lon="9.589928774202937"><ele>435.0</ele><time>2026-04-29T13:55:50.015Z</time></trkpt><trkpt lat="40.28559699544837" lon="9.58983697797847"><ele>435.33333333333337</ele><time>2026-04-29T13:55:51.015Z</time></trkpt><trkpt lat="40.285608007809046" lon="9.589749950334026"><ele>435.6666666666667</ele><time>2026-04-29T13:55:52.015Z</time></trkpt><trkpt lat="40.285622933842575" lon="9.589664874936636"><ele>436.0</ele><time>2026-04-29T13:55:53.015Z</time></trkpt><trkpt lat="40.28562026791627" lon="9.589492447468853"><ele>436.00000000000006</ele><time>2026-04-29T13:55:55.014Z</time></trkpt><trkpt lat="40.28561452302501" lon="9.589396958124235"><ele>436.0</ele><time>2026-04-29T13:55:56.014Z</time></trkpt><trkpt lat="40.28560563933675" lon="9.589297639685201"><ele>436.0</ele><time>2026-04-29T13:55:57.014Z</time></trkpt><trkpt lat="40.285600158794544" lon="9.589195873600989"><ele>436.0</ele><time>2026-04-29T13:55:58.013Z</time></trkpt><trkpt lat="40.285590029449764" lon="9.589095003801374"><ele>436.00000000000006</ele><time>2026-04-29T13:55:59.013Z</time></trkpt><trkpt lat="40.285566300369524" lon="9.588988581292892"><ele>436.0</ele><time>2026-04-29T13:56:00.013Z</time></trkpt><trkpt lat="40.28554540159569" lon="9.588876447271328"><ele>431.83333333333337</ele><time>2026-04-29T13:56:01.012Z</time></trkpt><trkpt lat="40.28552812718745" lon="9.588764082930709"><ele>427.6666666666667</ele><time>2026-04-29T13:56:02.012Z</time></trkpt><trkpt lat="40.28550833609424" lon="9.588658611118898"><ele>423.5</ele><time>2026-04-29T13:56:03.013Z</time></trkpt><trkpt lat="40.28549748266298" lon="9.588552949650946"><ele>419.33333333333337</ele><time>2026-04-29T13:56:04.012Z</time></trkpt><trkpt lat="40.28548699697934" lon="9.588446099295192"><ele>415.1666666666667</ele><time>2026-04-29T13:56:05.012Z</time></trkpt><trkpt lat="40.2854755829683" lon="9.588347030558346"><ele>411.0</ele><time>2026-04-29T13:56:06.012Z</time></trkpt><trkpt lat="40.285467772965916" lon="9.588239360886188"><ele>410.85714285714283</ele><time>2026-04-29T13:56:07.012Z</time></trkpt><trkpt lat="40.285464912994975" lon="9.588138626776407"><ele>410.71428571428567</ele><time>2026-04-29T13:56:08.011Z</time></trkpt><trkpt lat="40.28545966829137" lon="9.588035327056955"><ele>410.57142857142856</ele><time>2026-04-29T13:56:09.011Z</time></trkpt><trkpt lat="40.285458782571126" lon="9.58794456275499"><ele>410.42857142857144</ele><time>2026-04-29T13:56:10.011Z</time></trkpt><trkpt lat="40.285450682765536" lon="9.58785470516505"><ele>410.2857142857143</ele><time>2026-04-29T13:56:11.011Z</time></trkpt><trkpt lat="40.2854518361357" lon="9.587764699872269"><ele>410.14285714285717</ele><time>2026-04-29T13:56:12.011Z</time></trkpt><trkpt lat="40.28544930264845" lon="9.587665730998719"><ele>410.0</ele><time>2026-04-29T13:56:13.011Z</time></trkpt><trkpt lat="40.28544734285103" lon="9.587563052743349"><ele>409.8571428571429</ele><time>2026-04-29T13:56:14.011Z</time></trkpt><trkpt lat="40.28545477505656" lon="9.587469769495534"><ele>409.71428571428567</ele><time>2026-04-29T13:56:15.011Z</time></trkpt><trkpt lat="40.2854508279411" lon="9.587379044504319"><ele>409.57142857142856</ele><time>2026-04-29T13:56:16.011Z</time></trkpt><trkpt lat="40.2854640789484" lon="9.587283150199436"><ele>409.42857142857144</ele><time>2026-04-29T13:56:17.01Z</time></trkpt><trkpt lat="40.28548355424034" lon="9.58718708900832"><ele>409.28571428571433</ele><time>2026-04-29T13:56:18.01Z</time></trkpt><trkpt lat="40.28551740257552" lon="9.587097926184486"><ele>409.1428571428571</ele><time>2026-04-29T13:56:19.01Z</time></trkpt><trkpt lat="40.285566248164955" lon="9.587033800913543"><ele>409.0</ele><time>2026-04-29T13:56:20.01Z</time></trkpt><trkpt lat="40.28561985650975" lon="9.586984619983015"><ele>410.33333333333337</ele><time>2026-04-29T13:56:21.01Z</time></trkpt><trkpt lat="40.28567692231443" lon="9.586945728506876"><ele>411.6666666666667</ele><time>2026-04-29T13:56:22.01Z</time></trkpt><trkpt lat="40.28574578134165" lon="9.58691826475123"><ele>413.0</ele><time>2026-04-29T13:56:23.01Z</time></trkpt><trkpt lat="40.28582182212343" lon="9.586900837101965"><ele>414.33333333333337</ele><time>2026-04-29T13:56:24.01Z</time></trkpt><trkpt lat="40.28590072313316" lon="9.58688876683876"><ele>415.6666666666667</ele><time>2026-04-29T13:56:25.01Z</time></trkpt><trkpt lat="40.285983179933865" lon="9.58688927082128"><ele>417.0</ele><time>2026-04-29T13:56:26.01Z</time></trkpt><trkpt lat="40.28606560289098" lon="9.586895650562298"><ele>417.0</ele><time>2026-04-29T13:56:27.01Z</time></trkpt><trkpt lat="40.286144400182714" lon="9.586916008173384"><ele>417.0</ele><time>2026-04-29T13:56:28.01Z</time></trkpt><trkpt lat="40.28620784572218" lon="9.586923494524735"><ele>417.0</ele><time>2026-04-29T13:56:29.01Z</time></trkpt><trkpt lat="40.286276387675386" lon="9.586942531522341"><ele>417.0</ele><time>2026-04-29T13:56:34.01Z</time></trkpt><trkpt lat="40.28621364249255" lon="9.586934424644161"><ele>417.0</ele><time>2026-04-29T13:57:05.01Z</time></trkpt><trkpt lat="40.2863104950191" lon="9.586936471006732"><ele>417.0</ele><time>2026-04-29T13:57:14.01Z</time></trkpt><trkpt lat="40.2864223529612" lon="9.586946708952132"><ele>416.3333333333333</ele><time>2026-04-29T13:57:16.01Z</time></trkpt><trkpt lat="40.286485433206764" lon="9.58695369475819"><ele>415.66666666666663</ele><time>2026-04-29T13:57:17.01Z</time></trkpt><trkpt lat="40.286608288828454" lon="9.586963296116936"><ele>415.0</ele><time>2026-04-29T13:57:19.01Z</time></trkpt><trkpt lat="40.28667443801838" lon="9.586976430457199"><ele>414.3333333333333</ele><time>2026-04-29T13:57:20.01Z</time></trkpt><trkpt lat="40.28678993846023" lon="9.586997702677694"><ele>413.66666666666663</ele><time>2026-04-29T13:57:22.01Z</time></trkpt><trkpt lat="40.286852845552325" lon="9.587001492406445"><ele>413.0</ele><time>2026-04-29T13:57:23.01Z</time></trkpt><trkpt lat="40.28692585934398" lon="9.58700720445785"><ele>415.0</ele><time>2026-04-29T13:57:24.01Z</time></trkpt><trkpt lat="40.28704909019603" lon="9.587035628842358"><ele>417.0</ele><time>2026-04-29T13:57:26.01Z</time></trkpt><trkpt lat="40.287187303584055" lon="9.58705744157827"><ele>419.0</ele><time>2026-04-29T13:57:28.01Z</time></trkpt><trkpt lat="40.28727657162644" lon="9.58710767285448"><ele>421.0</ele><time>2026-04-29T13:57:29.01Z</time></trkpt><trkpt lat="40.28736058703949" lon="9.587184135021388"><ele>421.0</ele><time>2026-04-29T13:57:30.01Z</time></trkpt><trkpt lat="40.28743215873015" lon="9.587255181277731"><ele>421.0</ele><time>2026-04-29T13:57:31.01Z</time></trkpt><trkpt lat="40.28750366786013" lon="9.58733475787912"><ele>421.0</ele><time>2026-04-29T13:57:32.01Z</time></trkpt><trkpt lat="40.287566769757284" lon="9.587409208656744"><ele>421.0</ele><time>2026-04-29T13:57:33.01Z</time></trkpt><trkpt lat="40.28762722510036" lon="9.587504619465943"><ele>421.0</ele><time>2026-04-29T13:57:34.01Z</time></trkpt><trkpt lat="40.28769092485432" lon="9.587594737798806"><ele>421.00000000000006</ele><time>2026-04-29T13:57:35.01Z</time></trkpt><trkpt lat="40.28774289397377" lon="9.587686757646898"><ele>421.0</ele><time>2026-04-29T13:57:36.01Z</time></trkpt><trkpt lat="40.28778970947939" lon="9.587776398392412"><ele>421.0</ele><time>2026-04-29T13:57:37.01Z</time></trkpt><trkpt lat="40.28783033267639" lon="9.587864605378194"><ele>421.0</ele><time>2026-04-29T13:57:38.01Z</time></trkpt><trkpt lat="40.28787467235094" lon="9.587953119868727"><ele>421.00000000000006</ele><time>2026-04-29T13:57:39.01Z</time></trkpt><trkpt lat="40.287898677828856" lon="9.5880436788959"><ele>421.0</ele><time>2026-04-29T13:57:40.01Z</time></trkpt><trkpt lat="40.287926892710736" lon="9.588131940524406"><ele>422.1666666666667</ele><time>2026-04-29T13:57:41.01Z</time></trkpt><trkpt lat="40.287959548900815" lon="9.588223252383559"><ele>423.33333333333337</ele><time>2026-04-29T13:57:42.01Z</time></trkpt><trkpt lat="40.287989239097335" lon="9.588312325169142"><ele>424.5</ele><time>2026-04-29T13:57:43.01Z</time></trkpt><trkpt lat="40.288032993694245" lon="9.588403891195423"><ele>425.66666666666663</ele><time>2026-04-29T13:57:44.01Z</time></trkpt><trkpt lat="40.28807516970527" lon="9.588497848375397"><ele>426.8333333333333</ele><time>2026-04-29T13:57:45.01Z</time></trkpt><trkpt lat="40.28811238009895" lon="9.5885968655969"><ele>428.0</ele><time>2026-04-29T13:57:46.01Z</time></trkpt><trkpt lat="40.28813805777962" lon="9.588694660306299"><ele>424.8571428571429</ele><time>2026-04-29T13:57:47.01Z</time></trkpt><trkpt lat="40.2881579903465" lon="9.58879136348231"><ele>421.7142857142857</ele><time>2026-04-29T13:57:48.01Z</time></trkpt><trkpt lat="40.288178186583536" lon="9.588885559459317"><ele>418.57142857142856</ele><time>2026-04-29T13:57:49.01Z</time></trkpt><trkpt lat="40.28819724970005" lon="9.588970527680313"><ele>415.42857142857144</ele><time>2026-04-29T13:57:50.01Z</time></trkpt><trkpt lat="40.28820755083374" lon="9.589066452795329"><ele>412.2857142857143</ele><time>2026-04-29T13:57:51.01Z</time></trkpt><trkpt lat="40.28821182155724" lon="9.58915663102937"><ele>409.14285714285717</ele><time>2026-04-29T13:57:52.01Z</time></trkpt><trkpt lat="40.28821113160454" lon="9.58924976240208"><ele>406.0</ele><time>2026-04-29T13:57:53.01Z</time></trkpt><trkpt lat="40.28820947199422" lon="9.5893413635956"><ele>406.0</ele><time>2026-04-29T13:57:54.01Z</time></trkpt><trkpt lat="40.28821116508856" lon="9.589427191354243"><ele>406.0</ele><time>2026-04-29T13:57:55.01Z</time></trkpt><trkpt lat="40.28821819919142" lon="9.58951123885119"><ele>406.0</ele><time>2026-04-29T13:57:56.01Z</time></trkpt><trkpt lat="40.28820949603317" lon="9.589667956648805"><ele>406.0</ele><time>2026-04-29T13:57:58.01Z</time></trkpt><trkpt lat="40.28817570753455" lon="9.589789068617014"><ele>406.0</ele><time>2026-04-29T13:58:00.009Z</time></trkpt><trkpt lat="40.28813022961676" lon="9.589935994534924"><ele>405.6</ele><time>2026-04-29T13:58:02.01Z</time></trkpt><trkpt lat="40.288095224536136" lon="9.590014210554786"><ele>405.20000000000005</ele><time>2026-04-29T13:58:03.009Z</time></trkpt><trkpt lat="40.28804038001398" lon="9.590148269335286"><ele>404.79999999999995</ele><time>2026-04-29T13:58:05.01Z</time></trkpt><trkpt lat="40.287993762636255" lon="9.590263915245897"><ele>404.4</ele><time>2026-04-29T13:58:07.009Z</time></trkpt><trkpt lat="40.287949071879765" lon="9.590408348975311"><ele>404.0</ele><time>2026-04-29T13:58:09.009Z</time></trkpt><trkpt lat="40.28789103284134" lon="9.590521519774146"><ele>405.79999999999995</ele><time>2026-04-29T13:58:11.009Z</time></trkpt><trkpt lat="40.28787068776206" lon="9.590644066175306"><ele>407.59999999999997</ele><time>2026-04-29T13:58:13.009Z</time></trkpt><trkpt lat="40.28787437420643" lon="9.590749601675286"><ele>409.4</ele><time>2026-04-29T13:58:14.009Z</time></trkpt><trkpt lat="40.28786353998807" lon="9.59088035508677"><ele>411.2</ele><time>2026-04-29T13:58:15.009Z</time></trkpt><trkpt lat="40.28787975352382" lon="9.590985381886233"><ele>413.0</ele><time>2026-04-29T13:58:16.009Z</time></trkpt><trkpt lat="40.28791427664886" lon="9.591101618445084"><ele>413.4</ele><time>2026-04-29T13:58:17.009Z</time></trkpt><trkpt lat="40.28796645017978" lon="9.591182063188418"><ele>413.79999999999995</ele><time>2026-04-29T13:58:18.009Z</time></trkpt><trkpt lat="40.288025738419414" lon="9.591228081720033"><ele>414.2</ele><time>2026-04-29T13:58:19.009Z</time></trkpt><trkpt lat="40.28813426950889" lon="9.591308853896148"><ele>414.6</ele><time>2026-04-29T13:58:21.009Z</time></trkpt><trkpt lat="40.288237275319375" lon="9.591375351667661"><ele>415.0</ele><time>2026-04-29T13:58:23.009Z</time></trkpt><trkpt lat="40.28833856922314" lon="9.591387340816496"><ele>413.6</ele><time>2026-04-29T13:58:25.009Z</time></trkpt><trkpt lat="40.28841943464666" lon="9.591403473058318"><ele>412.2</ele><time>2026-04-29T13:58:27.009Z</time></trkpt><trkpt lat="40.2885348138225" lon="9.591426490522654"><ele>410.79999999999995</ele><time>2026-04-29T13:58:29.009Z</time></trkpt><trkpt lat="40.28863794971773" lon="9.591444597594476"><ele>409.4</ele><time>2026-04-29T13:58:31.009Z</time></trkpt><trkpt lat="40.28874846162642" lon="9.59147378323187"><ele>408.0</ele><time>2026-04-29T13:58:33.009Z</time></trkpt><trkpt lat="40.28886595070544" lon="9.591442386854395"><ele>408.1666666666667</ele><time>2026-04-29T13:58:35.009Z</time></trkpt><trkpt lat="40.28896001171787" lon="9.591412249122211"><ele>408.33333333333337</ele><time>2026-04-29T13:58:37.009Z</time></trkpt><trkpt lat="40.28902383677252" lon="9.59138501273347"><ele>408.5</ele><time>2026-04-29T13:58:39.009Z</time></trkpt><trkpt lat="40.28910325844705" lon="9.59136799499777"><ele>408.6666666666667</ele><time>2026-04-29T13:58:49.009Z</time></trkpt><trkpt lat="40.28912852844157" lon="9.591248927786861"><ele>408.83333333333337</ele><time>2026-04-29T13:58:52.009Z</time></trkpt><trkpt lat="40.28913127513141" lon="9.591146484812139"><ele>409.0</ele><time>2026-04-29T13:58:54.009Z</time></trkpt><trkpt lat="40.289095921726094" lon="9.591043138850132"><ele>407.6666666666667</ele><time>2026-04-29T13:58:56.009Z</time></trkpt><trkpt lat="40.28908471734821" lon="9.590954831156056"><ele>406.33333333333337</ele><time>2026-04-29T13:58:58.009Z</time></trkpt><trkpt lat="40.289083268041054" lon="9.590861121543925"><ele>405.0</ele><time>2026-04-29T13:59:00.009Z</time></trkpt><trkpt lat="40.289087643937556" lon="9.590769340091404"><ele>403.66666666666663</ele><time>2026-04-29T13:59:04.009Z</time></trkpt><trkpt lat="40.289091927269446" lon="9.590679501132236"><ele>402.3333333333333</ele><time>2026-04-29T13:59:07.009Z</time></trkpt><trkpt lat="40.289095519302066" lon="9.590592215500292"><ele>401.0</ele><time>2026-04-29T13:59:09.009Z</time></trkpt><trkpt lat="40.28910121605754" lon="9.590455744542652"><ele>400.99999999999994</ele><time>2026-04-29T13:59:12.01Z</time></trkpt><trkpt lat="40.28910516859333" lon="9.590368426686647"><ele>401.0</ele><time>2026-04-29T13:59:14.01Z</time></trkpt><trkpt lat="40.28911114600367" lon="9.590243570606948"><ele>401.0</ele><time>2026-04-29T13:59:17.01Z</time></trkpt><trkpt lat="40.2891155099686" lon="9.590152416222264"><ele>401.0</ele><time>2026-04-29T13:59:19.01Z</time></trkpt><trkpt lat="40.28913516864166" lon="9.590056249808189"><ele>400.99999999999994</ele><time>2026-04-29T13:59:21.01Z</time></trkpt><trkpt lat="40.289143941992556" lon="9.589949923252021"><ele>401.0</ele><time>2026-04-29T13:59:23.01Z</time></trkpt><trkpt lat="40.289134446983006" lon="9.589831903286981"><ele>399.99999999999994</ele><time>2026-04-29T13:59:25.01Z</time></trkpt><trkpt lat="40.289143012070305" lon="9.58972897390975"><ele>399.0</ele><time>2026-04-29T13:59:27.01Z</time></trkpt><trkpt lat="40.289151569393866" lon="9.589635686144092"><ele>398.0</ele><time>2026-04-29T13:59:30.01Z</time></trkpt><trkpt lat="40.2891614811296" lon="9.589541263604861"><ele>397.0</ele><time>2026-04-29T13:59:34.01Z</time></trkpt><trkpt lat="40.28918632489296" lon="9.58945531009634"><ele>395.99999999999994</ele><time>2026-04-29T13:59:39.01Z</time></trkpt><trkpt lat="40.28919856740936" lon="9.589340104049096"><ele>395.0</ele><time>2026-04-29T13:59:42.01Z</time></trkpt><trkpt lat="40.28919984378079" lon="9.589215215052569"><ele>394.66666666666663</ele><time>2026-04-29T13:59:45.01Z</time></trkpt><trkpt lat="40.28921881794082" lon="9.589116472719011"><ele>394.3333333333333</ele><time>2026-04-29T13:59:47.01Z</time></trkpt><trkpt lat="40.28923651494821" lon="9.589022973920502"><ele>394.0</ele><time>2026-04-29T13:59:49.01Z</time></trkpt><trkpt lat="40.28927315538887" lon="9.58892931497068"><ele>393.66666666666663</ele><time>2026-04-29T13:59:51.01Z</time></trkpt><trkpt lat="40.28928741063972" lon="9.58882248126916"><ele>393.3333333333333</ele><time>2026-04-29T13:59:53.01Z</time></trkpt><trkpt lat="40.2893188300875" lon="9.588738842604894"><ele>393.0</ele><time>2026-04-29T13:59:54.01Z</time></trkpt><trkpt lat="40.28936038090453" lon="9.58861708108499"><ele>392.3333333333333</ele><time>2026-04-29T13:59:56.01Z</time></trkpt><trkpt lat="40.28939017862636" lon="9.588501290290495"><ele>391.66666666666663</ele><time>2026-04-29T13:59:58.01Z</time></trkpt><trkpt lat="40.289391896716324" lon="9.588410904985864"><ele>391.0</ele><time>2026-04-29T13:59:59.01Z</time></trkpt><trkpt lat="40.289430586681505" lon="9.588253946272143"><ele>390.3333333333333</ele><time>2026-04-29T14:00:01.01Z</time></trkpt><trkpt lat="40.28944169634255" lon="9.588159789972739"><ele>389.66666666666663</ele><time>2026-04-29T14:00:02.01Z</time></trkpt><trkpt lat="40.289441771159346" lon="9.588063241578629"><ele>389.0</ele><time>2026-04-29T14:00:03.01Z</time></trkpt><trkpt lat="40.289447716179566" lon="9.587966354072416"><ele>389.0</ele><time>2026-04-29T14:00:04.01Z</time></trkpt><trkpt lat="40.28945464381713" lon="9.587867831972037"><ele>389.0</ele><time>2026-04-29T14:00:05.01Z</time></trkpt><trkpt lat="40.289459249390255" lon="9.587727674486965"><ele>389.0</ele><time>2026-04-29T14:00:07.009Z</time></trkpt><trkpt lat="40.289475866886896" lon="9.587562625863365"><ele>389.0</ele><time>2026-04-29T14:00:09.01Z</time></trkpt><trkpt lat="40.289488778665024" lon="9.587479175252595"><ele>389.0</ele><time>2026-04-29T14:00:10.01Z</time></trkpt><trkpt lat="40.28949286347549" lon="9.5873765887662"><ele>388.16666666666663</ele><time>2026-04-29T14:00:11.01Z</time></trkpt><trkpt lat="40.28950456361006" lon="9.587255260608126"><ele>387.3333333333333</ele><time>2026-04-29T14:00:12.009Z</time></trkpt><trkpt lat="40.28950793561443" lon="9.587138473989025"><ele>386.5</ele><time>2026-04-29T14:00:13.009Z</time></trkpt><trkpt lat="40.28951059922005" lon="9.587022915249436"><ele>385.66666666666663</ele><time>2026-04-29T14:00:14.01Z</time></trkpt><trkpt lat="40.28952861993354" lon="9.586915181813453"><ele>384.8333333333333</ele><time>2026-04-29T14:00:15.009Z</time></trkpt><trkpt lat="40.28953334750616" lon="9.586816948436118"><ele>384.0</ele><time>2026-04-29T14:00:16.01Z</time></trkpt><trkpt lat="40.289528964413265" lon="9.586704488162507"><ele>383.5</ele><time>2026-04-29T14:00:17.01Z</time></trkpt><trkpt lat="40.28954211960053" lon="9.586599571519024"><ele>383.0</ele><time>2026-04-29T14:00:18.009Z</time></trkpt><trkpt lat="40.28954028375089" lon="9.586480812448071"><ele>382.5</ele><time>2026-04-29T14:00:19.009Z</time></trkpt><trkpt lat="40.28955105265463" lon="9.586369514481234"><ele>382.0</ele><time>2026-04-29T14:00:20.009Z</time></trkpt><trkpt lat="40.28955742011449" lon="9.586255551079836"><ele>381.5</ele><time>2026-04-29T14:00:21.009Z</time></trkpt><trkpt lat="40.28956446377884" lon="9.586165193241275"><ele>381.0</ele><time>2026-04-29T14:00:22.009Z</time></trkpt><trkpt lat="40.289574659696726" lon="9.586030164220045"><ele>379.8333333333333</ele><time>2026-04-29T14:00:24.009Z</time></trkpt><trkpt lat="40.2895738860109" lon="9.58594282202129"><ele>378.6666666666667</ele><time>2026-04-29T14:00:29.009Z</time></trkpt><trkpt lat="40.28957578156892" lon="9.585859572166791"><ele>377.5</ele><time>2026-04-29T14:00:36.009Z</time></trkpt><trkpt lat="40.28962351752571" lon="9.585774688749485"><ele>376.33333333333337</ele><time>2026-04-29T14:00:40.009Z</time></trkpt><trkpt lat="40.28962801800751" lon="9.58562066534251"><ele>375.1666666666667</ele><time>2026-04-29T14:00:42.009Z</time></trkpt><trkpt lat="40.28964969280531" lon="9.585523609007407"><ele>374.0</ele><time>2026-04-29T14:00:43.009Z</time></trkpt><trkpt lat="40.28965939731738" lon="9.585421701413201"><ele>373.1666666666667</ele><time>2026-04-29T14:00:44.009Z</time></trkpt><trkpt lat="40.289665038815784" lon="9.585310384462053"><ele>372.33333333333337</ele><time>2026-04-29T14:00:45.009Z</time></trkpt><trkpt lat="40.28967133237267" lon="9.58520077600631"><ele>371.5</ele><time>2026-04-29T14:00:46.009Z</time></trkpt><trkpt lat="40.289675916378854" lon="9.585099713485931"><ele>370.6666666666667</ele><time>2026-04-29T14:00:47.009Z</time></trkpt><trkpt lat="40.289688548077066" lon="9.58499309430899"><ele>369.8333333333333</ele><time>2026-04-29T14:00:48.009Z</time></trkpt><trkpt lat="40.289696897359846" lon="9.584902915698551"><ele>369.0</ele><time>2026-04-29T14:00:49.009Z</time></trkpt><trkpt lat="40.28970633811004" lon="9.584811783043554"><ele>369.0</ele><time>2026-04-29T14:00:50.009Z</time></trkpt><trkpt lat="40.28971496098414" lon="9.584716279400503"><ele>369.0</ele><time>2026-04-29T14:00:51.009Z</time></trkpt><trkpt lat="40.289721657063666" lon="9.584621395760601"><ele>369.0</ele><time>2026-04-29T14:00:52.009Z</time></trkpt><trkpt lat="40.2897290502454" lon="9.584519239553545"><ele>369.0</ele><time>2026-04-29T14:00:53.009Z</time></trkpt><trkpt lat="40.28973191705429" lon="9.584407567924972"><ele>369.0</ele><time>2026-04-29T14:00:54.009Z</time></trkpt><trkpt lat="40.28974133276078" lon="9.58430366277476"><ele>369.0</ele><time>2026-04-29T14:00:55.009Z</time></trkpt><trkpt lat="40.28975366605517" lon="9.584197948265274"><ele>367.79999999999995</ele><time>2026-04-29T14:00:56.009Z</time></trkpt><trkpt lat="40.28975606768643" lon="9.584101715392487"><ele>366.59999999999997</ele><time>2026-04-29T14:00:57.009Z</time></trkpt><trkpt lat="40.289742410388875" lon="9.584013710352215"><ele>365.4</ele><time>2026-04-29T14:00:58.009Z</time></trkpt><trkpt lat="40.289757192549274" lon="9.583892550977012"><ele>364.2</ele><time>2026-04-29T14:01:00.009Z</time></trkpt><trkpt lat="40.28961934411723" lon="9.58377970179856"><ele>363.0</ele><time>2026-04-29T14:01:03.009Z</time></trkpt><trkpt lat="40.289697461183636" lon="9.583711130333551"><ele>362.0</ele><time>2026-04-29T14:01:09.009Z</time></trkpt><trkpt lat="40.289764756981135" lon="9.583708830107296"><ele>361.0</ele><time>2026-04-29T14:01:16.009Z</time></trkpt><trkpt lat="40.28970045293135" lon="9.583194968068405"><ele>361.0</ele><time>2026-04-29T14:01:19.009Z</time></trkpt><trkpt lat="40.28970261321314" lon="9.58308416627835"><ele>361.0</ele><time>2026-04-29T14:01:23.01Z</time></trkpt><trkpt lat="40.28968265909131" lon="9.582993218288443"><ele>361.0</ele><time>2026-04-29T14:01:25.01Z</time></trkpt><trkpt lat="40.28960459936502" lon="9.58295961296099"><ele>361.0</ele><time>2026-04-29T14:01:27.01Z</time></trkpt><trkpt lat="40.289508432238215" lon="9.583032818739676"><ele>361.0</ele><time>2026-04-29T14:01:29.01Z</time></trkpt><trkpt lat="40.289386825418646" lon="9.583139941598688"><ele>361.0</ele><time>2026-04-29T14:01:31.01Z</time></trkpt><trkpt lat="40.289318425081944" lon="9.583225447771817"><ele>361.0</ele><time>2026-04-29T14:01:32.01Z</time></trkpt><trkpt lat="40.28925788363299" lon="9.583314509267428"><ele>361.0</ele><time>2026-04-29T14:01:33.01Z</time></trkpt><trkpt lat="40.28921015828323" lon="9.583402178557836"><ele>361.0</ele><time>2026-04-29T14:01:34.01Z</time></trkpt><trkpt lat="40.28916815034469" lon="9.583489787782026"><ele>361.0</ele><time>2026-04-29T14:01:35.01Z</time></trkpt><trkpt lat="40.28911915829199" lon="9.583588234875403"><ele>361.0</ele><time>2026-04-29T14:01:36.01Z</time></trkpt><trkpt lat="40.289072908035884" lon="9.583702391705325"><ele>361.4</ele><time>2026-04-29T14:01:37.01Z</time></trkpt><trkpt lat="40.289012174799204" lon="9.583823221774205"><ele>361.8</ele><time>2026-04-29T14:01:38.01Z</time></trkpt><trkpt lat="40.28895246623583" lon="9.583950206283417"><ele>362.2</ele><time>2026-04-29T14:01:39.01Z</time></trkpt><trkpt lat="40.288896960826925" lon="9.584067507051774"><ele>362.59999999999997</ele><time>2026-04-29T14:01:40.01Z</time></trkpt><trkpt lat="40.288848447667284" lon="9.584181768536727"><ele>363.0</ele><time>2026-04-29T14:01:41.01Z</time></trkpt><trkpt lat="40.28880475284997" lon="9.584266731756172"><ele>363.79999999999995</ele><time>2026-04-29T14:01:42.01Z</time></trkpt><trkpt lat="40.288747866843565" lon="9.584357816432469"><ele>364.6</ele><time>2026-04-29T14:01:43.01Z</time></trkpt><trkpt lat="40.28869189606218" lon="9.584436466676067"><ele>365.4</ele><time>2026-04-29T14:01:44.01Z</time></trkpt><trkpt lat="40.28862060000205" lon="9.584518478267503"><ele>366.20000000000005</ele><time>2026-04-29T14:01:45.01Z</time></trkpt><trkpt lat="40.28853849921261" lon="9.584595926854568"><ele>367.0</ele><time>2026-04-29T14:01:46.01Z</time></trkpt><trkpt lat="40.28845373983832" lon="9.584671828654537"><ele>369.20000000000005</ele><time>2026-04-29T14:01:47.01Z</time></trkpt><trkpt lat="40.28836587395364" lon="9.584741758084014"><ele>371.4</ele><time>2026-04-29T14:01:48.01Z</time></trkpt><trkpt lat="40.288274981761646" lon="9.584819868896925"><ele>373.6</ele><time>2026-04-29T14:01:49.01Z</time></trkpt><trkpt lat="40.2881827632008" lon="9.58489967780418"><ele>375.79999999999995</ele><time>2026-04-29T14:01:50.01Z</time></trkpt><trkpt lat="40.2880861156287" lon="9.584984738168911"><ele>378.0</ele><time>2026-04-29T14:01:51.01Z</time></trkpt><trkpt lat="40.287989763749756" lon="9.585074341481121"><ele>378.75</ele><time>2026-04-29T14:01:52.01Z</time></trkpt><trkpt lat="40.28789346525531" lon="9.58517214104659"><ele>379.5</ele><time>2026-04-29T14:01:53.01Z</time></trkpt><trkpt lat="40.28779359968908" lon="9.58526206977387"><ele>380.25</ele><time>2026-04-29T14:01:54.01Z</time></trkpt><trkpt lat="40.28770099444454" lon="9.585352365504614"><ele>381.0</ele><time>2026-04-29T14:01:55.01Z</time></trkpt><trkpt lat="40.28761093655835" lon="9.585436860666528"><ele>383.6</ele><time>2026-04-29T14:01:56.01Z</time></trkpt><trkpt lat="40.28752390834656" lon="9.585520681462324"><ele>386.20000000000005</ele><time>2026-04-29T14:01:57.01Z</time></trkpt><trkpt lat="40.28744087688878" lon="9.585593090291434"><ele>388.79999999999995</ele><time>2026-04-29T14:01:58.01Z</time></trkpt><trkpt lat="40.28735099333605" lon="9.585669843308459"><ele>391.4</ele><time>2026-04-29T14:01:59.01Z</time></trkpt><trkpt lat="40.28726307180862" lon="9.585747909188362"><ele>394.0</ele><time>2026-04-29T14:02:00.01Z</time></trkpt><trkpt lat="40.28717613318011" lon="9.58581458290071"><ele>395.0</ele><time>2026-04-29T14:02:01.01Z</time></trkpt><trkpt lat="40.28709259848916" lon="9.585874950637988"><ele>396.0</ele><time>2026-04-29T14:02:02.01Z</time></trkpt><trkpt lat="40.28700869801643" lon="9.585915881338266"><ele>397.0</ele><time>2026-04-29T14:02:03.01Z</time></trkpt><trkpt lat="40.286917853036314" lon="9.585932154216978"><ele>398.0</ele><time>2026-04-29T14:02:04.01Z</time></trkpt><trkpt lat="40.28682158599077" lon="9.58593812353383"><ele>399.0</ele><time>2026-04-29T14:02:05.01Z</time></trkpt><trkpt lat="40.28671945359699" lon="9.585935880152828"><ele>399.0</ele><time>2026-04-29T14:02:06.01Z</time></trkpt><trkpt lat="40.28661211353809" lon="9.585930717406036"><ele>399.0</ele><time>2026-04-29T14:02:07.01Z</time></trkpt><trkpt lat="40.286501184650064" lon="9.585929353440708"><ele>399.0</ele><time>2026-04-29T14:02:08.01Z</time></trkpt><trkpt lat="40.28639582605818" lon="9.585924959043297"><ele>399.0</ele><time>2026-04-29T14:02:09.01Z</time></trkpt><trkpt lat="40.28628959532036" lon="9.58591672410873"><ele>399.0</ele><time>2026-04-29T14:02:10.01Z</time></trkpt><trkpt lat="40.28616877307786" lon="9.585912345462242"><ele>399.79999999999995</ele><time>2026-04-29T14:02:11.01Z</time></trkpt><trkpt lat="40.28607439502661" lon="9.58591543474024"><ele>400.59999999999997</ele><time>2026-04-29T14:02:12.01Z</time></trkpt><trkpt lat="40.28595570388434" lon="9.585915384262277"><ele>401.4</ele><time>2026-04-29T14:02:13.009Z</time></trkpt><trkpt lat="40.285850018815005" lon="9.585914673339346"><ele>402.2</ele><time>2026-04-29T14:02:14.009Z</time></trkpt><trkpt lat="40.285758670237826" lon="9.585936839919516"><ele>403.0</ele><time>2026-04-29T14:02:15.009Z</time></trkpt><trkpt lat="40.28567213707173" lon="9.585967298875904"><ele>403.00000000000006</ele><time>2026-04-29T14:02:16.009Z</time></trkpt><trkpt lat="40.28559754925586" lon="9.585965932298818"><ele>403.0</ele><time>2026-04-29T14:02:17.009Z</time></trkpt><trkpt lat="40.28551263458055" lon="9.586033915511434"><ele>403.0</ele><time>2026-04-29T14:02:18.009Z</time></trkpt><trkpt lat="40.28544664010029" lon="9.58612595602332"><ele>403.0</ele><time>2026-04-29T14:02:19.009Z</time></trkpt><trkpt lat="40.28539771339052" lon="9.586229556102035"><ele>403.00000000000006</ele><time>2026-04-29T14:02:20.009Z</time></trkpt><trkpt lat="40.285368079982874" lon="9.58632781314145"><ele>403.0</ele><time>2026-04-29T14:02:21.009Z</time></trkpt><trkpt lat="40.285348149222656" lon="9.5864344566807"><ele>403.83333333333337</ele><time>2026-04-29T14:02:22.01Z</time></trkpt><trkpt lat="40.28535233948072" lon="9.586565175719265"><ele>404.6666666666667</ele><time>2026-04-29T14:02:23.01Z</time></trkpt><trkpt lat="40.2853590454714" lon="9.586676926388256"><ele>405.5</ele><time>2026-04-29T14:02:24.009Z</time></trkpt><trkpt lat="40.285367915976046" lon="9.586782746329199"><ele>406.33333333333337</ele><time>2026-04-29T14:02:25.009Z</time></trkpt><trkpt lat="40.28539456973959" lon="9.586878909101495"><ele>407.1666666666667</ele><time>2026-04-29T14:02:26.009Z</time></trkpt><trkpt lat="40.28540301550474" lon="9.586968724579727"><ele>408.0</ele><time>2026-04-29T14:02:27.009Z</time></trkpt><trkpt lat="40.28543701203986" lon="9.587073134464044"><ele>408.2</ele><time>2026-04-29T14:02:29.009Z</time></trkpt><trkpt lat="40.28551781722678" lon="9.587097804141195"><ele>408.4</ele><time>2026-04-29T14:02:32.009Z</time></trkpt><trkpt lat="40.28558980699492" lon="9.587018929201717"><ele>408.59999999999997</ele><time>2026-04-29T14:02:34.009Z</time></trkpt><trkpt lat="40.285697668924854" lon="9.586935625293359"><ele>408.79999999999995</ele><time>2026-04-29T14:02:36.009Z</time></trkpt><trkpt lat="40.285775097449864" lon="9.586918146713636"><ele>409.0</ele><time>2026-04-29T14:02:37.009Z</time></trkpt><trkpt lat="40.28586021470576" lon="9.58690158324499"><ele>410.33333333333337</ele><time>2026-04-29T14:02:38.009Z</time></trkpt><trkpt lat="40.28594710985973" lon="9.586886817193376"><ele>411.6666666666667</ele><time>2026-04-29T14:02:39.009Z</time></trkpt><trkpt lat="40.28603792249565" lon="9.586892310738754"><ele>413.0</ele><time>2026-04-29T14:02:40.009Z</time></trkpt><trkpt lat="40.2861304025238" lon="9.586895917254033"><ele>414.33333333333337</ele><time>2026-04-29T14:02:41.009Z</time></trkpt><trkpt lat="40.28621745651598" lon="9.586904494285907"><ele>415.6666666666667</ele><time>2026-04-29T14:02:42.009Z</time></trkpt><trkpt lat="40.28629570153971" lon="9.586913857506595"><ele>417.0</ele><time>2026-04-29T14:02:43.009Z</time></trkpt><trkpt lat="40.28638251669846" lon="9.586929335772579"><ele>416.20000000000005</ele><time>2026-04-29T14:02:44.009Z</time></trkpt><trkpt lat="40.28647102818873" lon="9.586938563820512"><ele>415.4</ele><time>2026-04-29T14:02:45.009Z</time></trkpt><trkpt lat="40.28661322829097" lon="9.586960130300277"><ele>414.6</ele><time>2026-04-29T14:02:47.009Z</time></trkpt><trkpt lat="40.286689287311695" lon="9.586969641848391"><ele>413.79999999999995</ele><time>2026-04-29T14:02:48.009Z</time></trkpt><trkpt lat="40.286771518358364" lon="9.586984404888964"><ele>413.0</ele><time>2026-04-29T14:02:49.009Z</time></trkpt><trkpt lat="40.286855613223686" lon="9.58699170909984"><ele>414.3333333333333</ele><time>2026-04-29T14:02:50.009Z</time></trkpt><trkpt lat="40.28692948882676" lon="9.58701169157044"><ele>415.66666666666663</ele><time>2026-04-29T14:02:51.009Z</time></trkpt><trkpt lat="40.287005933789544" lon="9.58702764012808"><ele>417.0</ele><time>2026-04-29T14:02:52.009Z</time></trkpt><trkpt lat="40.28708785847843" lon="9.587029813347902"><ele>418.33333333333337</ele><time>2026-04-29T14:02:53.009Z</time></trkpt><trkpt lat="40.28716730193023" lon="9.587054378448823"><ele>419.6666666666667</ele><time>2026-04-29T14:02:54.009Z</time></trkpt><trkpt lat="40.287240338490996" lon="9.587085251899854"><ele>421.0</ele><time>2026-04-29T14:02:55.009Z</time></trkpt><trkpt lat="40.287328711203834" lon="9.587152008611207"><ele>421.0</ele><time>2026-04-29T14:02:56.009Z</time></trkpt><trkpt lat="40.287413798287794" lon="9.587235755253593"><ele>421.0</ele><time>2026-04-29T14:02:57.009Z</time></trkpt><trkpt lat="40.28748470582605" lon="9.587332805889304"><ele>421.0</ele><time>2026-04-29T14:02:58.009Z</time></trkpt><trkpt lat="40.287568826108476" lon="9.58741163475758"><ele>421.0</ele><time>2026-04-29T14:02:59.009Z</time></trkpt><trkpt lat="40.287638706904" lon="9.587500892120934"><ele>421.0</ele><time>2026-04-29T14:03:00.009Z</time></trkpt><trkpt lat="40.28769519997548" lon="9.587583727086471"><ele>421.00000000000006</ele><time>2026-04-29T14:03:01.009Z</time></trkpt><trkpt lat="40.287740174603805" lon="9.587687490384717"><ele>421.0</ele><time>2026-04-29T14:03:02.009Z</time></trkpt><trkpt lat="40.28777701588241" lon="9.587789281539216"><ele>421.0</ele><time>2026-04-29T14:03:03.009Z</time></trkpt><trkpt lat="40.287801084749134" lon="9.587890097925381"><ele>421.0</ele><time>2026-04-29T14:03:04.009Z</time></trkpt><trkpt lat="40.28783276587548" lon="9.587972375496863"><ele>421.00000000000006</ele><time>2026-04-29T14:03:05.009Z</time></trkpt><trkpt lat="40.28788943127837" lon="9.588100918553804"><ele>421.0</ele><time>2026-04-29T14:03:07.009Z</time></trkpt><trkpt lat="40.28795364632969" lon="9.588224231475792"><ele>422.4</ele><time>2026-04-29T14:03:09.009Z</time></trkpt><trkpt lat="40.287994768511986" lon="9.588377090876016"><ele>423.8</ele><time>2026-04-29T14:03:11.009Z</time></trkpt><trkpt lat="40.288053402139035" lon="9.588516910253224"><ele>425.19999999999993</ele><time>2026-04-29T14:03:13.009Z</time></trkpt><trkpt lat="40.288083314419225" lon="9.58859076989128"><ele>426.59999999999997</ele><time>2026-04-29T14:03:14.009Z</time></trkpt><trkpt lat="40.288109716224284" lon="9.588675854289498"><ele>428.0</ele><time>2026-04-29T14:03:15.009Z</time></trkpt><trkpt lat="40.28813563332173" lon="9.588776226688639"><ele>424.8571428571429</ele><time>2026-04-29T14:03:16.009Z</time></trkpt><trkpt lat="40.288137223349445" lon="9.58887053403111"><ele>421.7142857142857</ele><time>2026-04-29T14:03:17.009Z</time></trkpt><trkpt lat="40.28815120210182" lon="9.588958557144151"><ele>418.57142857142856</ele><time>2026-04-29T14:03:18.009Z</time></trkpt><trkpt lat="40.28816274243741" lon="9.589046441847554"><ele>415.42857142857144</ele><time>2026-04-29T14:03:19.01Z</time></trkpt><trkpt lat="40.2881880343319" lon="9.589137333270251"><ele>412.2857142857143</ele><time>2026-04-29T14:03:20.01Z</time></trkpt><trkpt lat="40.28819625759615" lon="9.589236864203924"><ele>409.14285714285717</ele><time>2026-04-29T14:03:21.01Z</time></trkpt><trkpt lat="40.28820155081919" lon="9.58933652279294"><ele>406.0</ele><time>2026-04-29T14:03:22.01Z</time></trkpt><trkpt lat="40.2882021503046" lon="9.589434083730819"><ele>405.6666666666667</ele><time>2026-04-29T14:03:23.01Z</time></trkpt><trkpt lat="40.2881976667391" lon="9.589537720403882"><ele>405.33333333333337</ele><time>2026-04-29T14:03:24.01Z</time></trkpt><trkpt lat="40.28818936151121" lon="9.589633764366528"><ele>405.0</ele><time>2026-04-29T14:03:25.01Z</time></trkpt><trkpt lat="40.28817605885004" lon="9.58972191639565"><ele>404.66666666666663</ele><time>2026-04-29T14:03:26.01Z</time></trkpt><trkpt lat="40.2881592804951" lon="9.589801746006557"><ele>404.3333333333333</ele><time>2026-04-29T14:03:27.01Z</time></trkpt><trkpt lat="40.28811205891199" lon="9.58996373852181"><ele>404.0</ele><time>2026-04-29T14:03:29.01Z</time></trkpt><trkpt lat="40.28807470126242" lon="9.590059653883063"><ele>405.49999999999994</ele><time>2026-04-29T14:03:30.01Z</time></trkpt><trkpt lat="40.28803905855805" lon="9.590149211770555"><ele>407.0</ele><time>2026-04-29T14:03:31.01Z</time></trkpt><trkpt lat="40.288005628453995" lon="9.590237623031115"><ele>408.5</ele><time>2026-04-29T14:03:32.01Z</time></trkpt><trkpt lat="40.287974355012025" lon="9.590325193385674"><ele>410.0</ele><time>2026-04-29T14:03:33.01Z</time></trkpt><trkpt lat="40.28791379502445" lon="9.590406706452839"><ele>411.49999999999994</ele><time>2026-04-29T14:03:34.01Z</time></trkpt><trkpt lat="40.28787732406715" lon="9.590495706168875"><ele>413.0</ele><time>2026-04-29T14:03:35.01Z</time></trkpt><trkpt lat="40.28784325519124" lon="9.590580695743983"><ele>412.99999999999994</ele><time>2026-04-29T14:03:36.01Z</time></trkpt><trkpt lat="40.28781570715158" lon="9.590671941059727"><ele>413.0</ele><time>2026-04-29T14:03:37.01Z</time></trkpt><trkpt lat="40.28784556045728" lon="9.590772310064022"><ele>413.0</ele><time>2026-04-29T14:03:38.01Z</time></trkpt><trkpt lat="40.28784582017017" lon="9.59085966175851"><ele>413.0</ele><time>2026-04-29T14:03:39.01Z</time></trkpt><trkpt lat="40.28784867524976" lon="9.590954970435421"><ele>412.99999999999994</ele><time>2026-04-29T14:03:40.01Z</time></trkpt><trkpt lat="40.287893436921514" lon="9.591036333686105"><ele>413.0</ele><time>2026-04-29T14:03:41.01Z</time></trkpt><trkpt lat="40.28793349142342" lon="9.591132872063074"><ele>413.3333333333333</ele><time>2026-04-29T14:03:42.01Z</time></trkpt><trkpt lat="40.28799973194835" lon="9.591194566052748"><ele>413.66666666666663</ele><time>2026-04-29T14:03:43.01Z</time></trkpt><trkpt lat="40.28805651883154" lon="9.591249071346665"><ele>414.0</ele><time>2026-04-29T14:03:44.01Z</time></trkpt><trkpt lat="40.288113524339394" lon="9.591285231679699"><ele>414.33333333333337</ele><time>2026-04-29T14:03:45.01Z</time></trkpt><trkpt lat="40.28821688981605" lon="9.591322802377455"><ele>414.6666666666667</ele><time>2026-04-29T14:03:47.01Z</time></trkpt><trkpt lat="40.28830431462938" lon="9.591352750843864"><ele>415.0</ele><time>2026-04-29T14:03:49.01Z</time></trkpt><trkpt lat="40.28837522181422" lon="9.59138501532926"><ele>413.6</ele><time>2026-04-29T14:03:50.01Z</time></trkpt><trkpt lat="40.28847721121773" lon="9.591419043240005"><ele>412.2</ele><time>2026-04-29T14:03:52.01Z</time></trkpt><trkpt lat="40.28855759601658" lon="9.591419724195811"><ele>410.79999999999995</ele><time>2026-04-29T14:03:53.01Z</time></trkpt><trkpt lat="40.28867846365629" lon="9.591417504692181"><ele>409.4</ele><time>2026-04-29T14:03:55.01Z</time></trkpt><trkpt lat="40.288781137654546" lon="9.591432663183133"><ele>408.0</ele><time>2026-04-29T14:03:57.01Z</time></trkpt><trkpt lat="40.28887935924989" lon="9.59141307234645"><ele>408.1666666666667</ele><time>2026-04-29T14:03:59.01Z</time></trkpt><trkpt lat="40.28898236896664" lon="9.59139520435511"><ele>408.33333333333337</ele><time>2026-04-29T14:04:01.01Z</time></trkpt><trkpt lat="40.289064518034756" lon="9.591353881171385"><ele>408.5</ele><time>2026-04-29T14:04:03.01Z</time></trkpt><trkpt lat="40.28911452490299" lon="9.591298229506801"><ele>408.6666666666667</ele><time>2026-04-29T14:04:06.01Z</time></trkpt><trkpt lat="40.28910158406802" lon="9.591171019758791"><ele>408.83333333333337</ele><time>2026-04-29T14:04:09.01Z</time></trkpt><trkpt lat="40.289086159680615" lon="9.591056464662698"><ele>409.0</ele><time>2026-04-29T14:04:11.01Z</time></trkpt><trkpt lat="40.28907501496844" lon="9.590951461489256"><ele>407.6666666666667</ele><time>2026-04-29T14:04:13.01Z</time></trkpt><trkpt lat="40.28908109597714" lon="9.590849555830337"><ele>406.33333333333337</ele><time>2026-04-29T14:04:15.01Z</time></trkpt><trkpt lat="40.28910432866811" lon="9.590763909907535"><ele>405.0</ele><time>2026-04-29T14:04:17.01Z</time></trkpt><trkpt lat="40.28909270992956" lon="9.590663087439745"><ele>403.66666666666663</ele><time>2026-04-29T14:04:19.01Z</time></trkpt><trkpt lat="40.28909747928102" lon="9.590563060777598"><ele>402.3333333333333</ele><time>2026-04-29T14:04:21.01Z</time></trkpt><trkpt lat="40.28910164080412" lon="9.590445569378332"><ele>401.0</ele><time>2026-04-29T14:04:23.01Z</time></trkpt><trkpt lat="40.289107442094654" lon="9.590320937936532"><ele>399.99999999999994</ele><time>2026-04-29T14:04:25.01Z</time></trkpt><trkpt lat="40.28911293708838" lon="9.590206158471156"><ele>399.0</ele><time>2026-04-29T14:04:27.01Z</time></trkpt><trkpt lat="40.28912914884491" lon="9.590120558628817"><ele>398.0</ele><time>2026-04-29T14:04:29.01Z</time></trkpt><trkpt lat="40.289135529396205" lon="9.590000493743728"><ele>397.0</ele><time>2026-04-29T14:04:32.01Z</time></trkpt><trkpt lat="40.289133476967635" lon="9.589916108469994"><ele>395.99999999999994</ele><time>2026-04-29T14:04:34.01Z</time></trkpt><trkpt lat="40.2891415324758" lon="9.58982108287283"><ele>395.0</ele><time>2026-04-29T14:04:36.01Z</time></trkpt><trkpt lat="40.289144075041904" lon="9.589716199653928"><ele>395.0</ele><time>2026-04-29T14:04:38.01Z</time></trkpt><trkpt lat="40.28915237056623" lon="9.589628053810317"><ele>395.0</ele><time>2026-04-29T14:04:41.01Z</time></trkpt><trkpt lat="40.28913072306614" lon="9.589538855868415"><ele>395.0</ele><time>2026-04-29T14:04:49.01Z</time></trkpt><trkpt lat="40.28898717570911" lon="9.589590474466615"><ele>395.0</ele><time>2026-04-29T14:05:23.01Z</time></trkpt><trkpt lat="40.28914414911142" lon="9.589546185263087"><ele>395.0</ele><time>2026-04-29T14:06:23.011Z</time></trkpt><trkpt lat="40.28899479693309" lon="9.589526017693595"><ele>395.0</ele><time>2026-04-29T14:06:24.01Z</time></trkpt><trkpt lat="40.289142293458596" lon="9.589563862912794"><ele>395.0</ele><time>2026-04-29T14:06:35.01Z</time></trkpt><trkpt lat="40.28913290166596" lon="9.589653332422175"><ele>395.0</ele><time>2026-04-29T14:07:16.01Z</time></trkpt><trkpt lat="40.289148367378594" lon="9.58950600161941"><ele>395.0</ele><time>2026-04-29T14:08:03.011Z</time></trkpt><trkpt lat="40.28911655041873" lon="9.589364337173183"><ele>395.0</ele><time>2026-04-29T14:09:52.011Z</time></trkpt><trkpt lat="40.28905859820539" lon="9.589497040227439"><ele>393.0</ele><time>2026-04-29T14:09:53.011Z</time></trkpt><trkpt lat="40.28908754015426" lon="9.589400226303884"><ele>393.0</ele><time>2026-04-29T14:13:14.009Z</time></trkpt><trkpt lat="40.2890044867278" lon="9.589469112338772"><ele>393.0</ele><time>2026-04-29T14:25:46.969Z</time></trkpt></trkseg><trkseg><trkpt lat="40.263997422402774" lon="9.576859302433748"><ele>372.0</ele><time>2026-04-30T05:59:59.009Z</time></trkpt><trkpt lat="40.26407225181982" lon="9.576813867866743"><ele>372.0</ele><time>2026-04-30T06:00:23.01Z</time></trkpt><trkpt lat="40.26414551700491" lon="9.576771786226756"><ele>372.0</ele><time>2026-04-30T06:00:25.01Z</time></trkpt><trkpt lat="40.26423010553528" lon="9.576727450762881"><ele>372.0</ele><time>2026-04-30T06:00:27.01Z</time></trkpt><trkpt lat="40.26431864177795" lon="9.576679517116439"><ele>372.0</ele><time>2026-04-30T06:00:29.01Z</time></trkpt><trkpt lat="40.2644221054285" lon="9.57665450113635"><ele>372.0</ele><time>2026-04-30T06:00:31.01Z</time></trkpt><trkpt lat="40.2644857082875" lon="9.576654672577096"><ele>372.0</ele><time>2026-04-30T06:00:32.01Z</time></trkpt><trkpt lat="40.26455029716759" lon="9.576663188398816"><ele>372.0</ele><time>2026-04-30T06:00:33.01Z</time></trkpt><trkpt lat="40.264662400000454" lon="9.576705408563079"><ele>372.0</ele><time>2026-04-30T06:00:35.01Z</time></trkpt><trkpt lat="40.26475510253707" lon="9.576774418957541"><ele>372.0</ele><time>2026-04-30T06:00:37.01Z</time></trkpt><trkpt lat="40.264818627351396" lon="9.576806987911928"><ele>372.0</ele><time>2026-04-30T06:00:38.01Z</time></trkpt><trkpt lat="40.26493359338735" lon="9.576876884569781"><ele>371.75</ele><time>2026-04-30T06:00:40.011Z</time></trkpt><trkpt lat="40.26502477674421" lon="9.576958253931897"><ele>371.5</ele><time>2026-04-30T06:00:42.011Z</time></trkpt><trkpt lat="40.265105082934404" lon="9.577073133921795"><ele>371.25</ele><time>2026-04-30T06:00:44.011Z</time></trkpt><trkpt lat="40.265193846092224" lon="9.57716589089543"><ele>371.0</ele><time>2026-04-30T06:00:46.011Z</time></trkpt><trkpt lat="40.265311298163" lon="9.577256549039587"><ele>373.0</ele><time>2026-04-30T06:00:48.011Z</time></trkpt><trkpt lat="40.265385278501824" lon="9.577310780158461"><ele>375.0</ele><time>2026-04-30T06:00:49.011Z</time></trkpt><trkpt lat="40.26545992080529" lon="9.57736956647481"><ele>377.0</ele><time>2026-04-30T06:00:50.011Z</time></trkpt><trkpt lat="40.26554641507215" lon="9.577431523805965"><ele>379.0</ele><time>2026-04-30T06:00:51.011Z</time></trkpt><trkpt lat="40.265625932565854" lon="9.577482656488764"><ele>381.0</ele><time>2026-04-30T06:00:52.011Z</time></trkpt><trkpt lat="40.26570248699552" lon="9.577539948053312"><ele>383.0</ele><time>2026-04-30T06:00:53.011Z</time></trkpt><trkpt lat="40.26578584822884" lon="9.577597449887502"><ele>383.0</ele><time>2026-04-30T06:00:54.011Z</time></trkpt><trkpt lat="40.26587338037907" lon="9.577662326587262"><ele>383.0</ele><time>2026-04-30T06:00:55.011Z</time></trkpt><trkpt lat="40.26596260245384" lon="9.577730637747573"><ele>383.0</ele><time>2026-04-30T06:00:56.011Z</time></trkpt><trkpt lat="40.26605114140825" lon="9.577804709622102"><ele>383.0</ele><time>2026-04-30T06:00:57.011Z</time></trkpt><trkpt lat="40.2661456001554" lon="9.577864357839058"><ele>383.0</ele><time>2026-04-30T06:00:58.011Z</time></trkpt><trkpt lat="40.26623032100942" lon="9.577935842593831"><ele>385.4</ele><time>2026-04-30T06:00:59.011Z</time></trkpt><trkpt lat="40.26631481354185" lon="9.578005199585556"><ele>387.79999999999995</ele><time>2026-04-30T06:01:00.011Z</time></trkpt><trkpt lat="40.266415662875005" lon="9.578063749997172"><ele>390.2</ele><time>2026-04-30T06:01:01.011Z</time></trkpt><trkpt lat="40.26652417965841" lon="9.57812566129755"><ele>392.6</ele><time>2026-04-30T06:01:02.011Z</time></trkpt><trkpt lat="40.266633496183054" lon="9.578181228293776"><ele>395.0</ele><time>2026-04-30T06:01:03.011Z</time></trkpt><trkpt lat="40.266743514469084" lon="9.578229563014075"><ele>395.0</ele><time>2026-04-30T06:01:04.011Z</time></trkpt><trkpt lat="40.26685168820548" lon="9.578266351922887"><ele>395.0</ele><time>2026-04-30T06:01:05.011Z</time></trkpt><trkpt lat="40.266959662476765" lon="9.578286611411954"><ele>395.0</ele><time>2026-04-30T06:01:06.011Z</time></trkpt><trkpt lat="40.26704652757108" lon="9.578301510093604"><ele>395.0</ele><time>2026-04-30T06:01:07.011Z</time></trkpt><trkpt lat="40.2671180155263" lon="9.578309303782925"><ele>395.0</ele><time>2026-04-30T06:01:08.011Z</time></trkpt><trkpt lat="40.26719918570708" lon="9.57834378330244"><ele>395.0</ele><time>2026-04-30T06:01:10.011Z</time></trkpt><trkpt lat="40.26715117825949" lon="9.578457833125933"><ele>395.0</ele><time>2026-04-30T06:01:14.012Z</time></trkpt><trkpt lat="40.2670218211779" lon="9.578448113776174"><ele>395.0</ele><time>2026-04-30T06:01:16.012Z</time></trkpt><trkpt lat="40.26694777949034" lon="9.578449165643674"><ele>395.0</ele><time>2026-04-30T06:01:17.012Z</time></trkpt><trkpt lat="40.266872111982224" lon="9.578457492466141"><ele>395.0</ele><time>2026-04-30T06:01:18.012Z</time></trkpt><trkpt lat="40.26680009255737" lon="9.578473504657739"><ele>395.0</ele><time>2026-04-30T06:01:19.012Z</time></trkpt><trkpt lat="40.266721911346124" lon="9.578509820599868"><ele>395.0</ele><time>2026-04-30T06:01:20.012Z</time></trkpt><trkpt lat="40.266652271313774" lon="9.578556234155462"><ele>395.0</ele><time>2026-04-30T06:01:21.012Z</time></trkpt><trkpt lat="40.266596486846325" lon="9.578612160391067"><ele>395.0</ele><time>2026-04-30T06:01:22.012Z</time></trkpt><trkpt lat="40.26654583914525" lon="9.578668732043138"><ele>395.0</ele><time>2026-04-30T06:01:23.012Z</time></trkpt><trkpt lat="40.266481534110525" lon="9.578701534579471"><ele>395.0</ele><time>2026-04-30T06:01:24.012Z</time></trkpt><trkpt lat="40.2664132978482" lon="9.578722984847095"><ele>395.0</ele><time>2026-04-30T06:01:25.012Z</time></trkpt><trkpt lat="40.266335194141725" lon="9.578712694692735"><ele>395.66666666666663</ele><time>2026-04-30T06:01:26.012Z</time></trkpt><trkpt lat="40.26626300871018" lon="9.578693768044133"><ele>396.3333333333333</ele><time>2026-04-30T06:01:27.012Z</time></trkpt><trkpt lat="40.266189926585064" lon="9.578663487230545"><ele>397.0</ele><time>2026-04-30T06:01:28.012Z</time></trkpt><trkpt lat="40.266115814786296" lon="9.57863892360808"><ele>397.66666666666663</ele><time>2026-04-30T06:01:29.012Z</time></trkpt><trkpt lat="40.26602380110045" lon="9.57861752811031"><ele>398.3333333333333</ele><time>2026-04-30T06:01:31.012Z</time></trkpt><trkpt lat="40.265938381679675" lon="9.578710329768992"><ele>399.0</ele><time>2026-04-30T06:01:33.012Z</time></trkpt><trkpt lat="40.265952632466735" lon="9.578863491969658"><ele>403.1666666666667</ele><time>2026-04-30T06:01:35.012Z</time></trkpt><trkpt lat="40.26603700111465" lon="9.578886727431447"><ele>407.33333333333337</ele><time>2026-04-30T06:01:36.012Z</time></trkpt><trkpt lat="40.26609974359514" lon="9.57892315540548"><ele>411.5</ele><time>2026-04-30T06:01:37.012Z</time></trkpt><trkpt lat="40.266176481977546" lon="9.578962058225093"><ele>415.6666666666667</ele><time>2026-04-30T06:01:38.012Z</time></trkpt><trkpt lat="40.2662335272643" lon="9.57902847353457"><ele>419.83333333333337</ele><time>2026-04-30T06:01:39.012Z</time></trkpt><trkpt lat="40.26631001162063" lon="9.579058862122274"><ele>424.0</ele><time>2026-04-30T06:01:40.012Z</time></trkpt><trkpt lat="40.26637851604348" lon="9.57910130256926"><ele>421.6</ele><time>2026-04-30T06:01:41.012Z</time></trkpt><trkpt lat="40.26650760689385" lon="9.579171302918576"><ele>419.2</ele><time>2026-04-30T06:01:43.012Z</time></trkpt><trkpt lat="40.26659590206373" lon="9.57921960471108"><ele>416.8</ele><time>2026-04-30T06:01:44.012Z</time></trkpt><trkpt lat="40.26667901334861" lon="9.579268431288021"><ele>414.40000000000003</ele><time>2026-04-30T06:01:45.012Z</time></trkpt><trkpt lat="40.26675179779994" lon="9.57931248573219"><ele>412.0</ele><time>2026-04-30T06:01:46.013Z</time></trkpt><trkpt lat="40.26681094008785" lon="9.579368011775221"><ele>412.00000000000006</ele><time>2026-04-30T06:01:47.013Z</time></trkpt><trkpt lat="40.26684153092713" lon="9.579463322669355"><ele>412.0</ele><time>2026-04-30T06:01:48.013Z</time></trkpt><trkpt lat="40.26689386120956" lon="9.579539466825775"><ele>412.0</ele><time>2026-04-30T06:01:49.013Z</time></trkpt><trkpt lat="40.26693553022539" lon="9.579628761300798"><ele>412.0</ele><time>2026-04-30T06:01:50.013Z</time></trkpt><trkpt lat="40.266993899863465" lon="9.57970700571191"><ele>412.00000000000006</ele><time>2026-04-30T06:01:51.013Z</time></trkpt><trkpt lat="40.267062911776655" lon="9.579786194434666"><ele>412.0</ele><time>2026-04-30T06:01:52.013Z</time></trkpt><trkpt lat="40.26713865395042" lon="9.579871650913427"><ele>413.0</ele><time>2026-04-30T06:01:53.013Z</time></trkpt><trkpt lat="40.26721429932956" lon="9.579956998157458"><ele>414.0</ele><time>2026-04-30T06:01:54.013Z</time></trkpt><trkpt lat="40.26729586940999" lon="9.580051010789129"><ele>415.0</ele><time>2026-04-30T06:01:55.013Z</time></trkpt><trkpt lat="40.2673774464809" lon="9.580139535065358"><ele>416.0</ele><time>2026-04-30T06:01:56.013Z</time></trkpt><trkpt lat="40.267460387035136" lon="9.580237178874608"><ele>417.0</ele><time>2026-04-30T06:01:57.013Z</time></trkpt><trkpt lat="40.26753109574768" lon="9.580337018730585"><ele>421.5</ele><time>2026-04-30T06:01:58.013Z</time></trkpt><trkpt lat="40.26761817846756" lon="9.580424147528806"><ele>426.0</ele><time>2026-04-30T06:01:59.013Z</time></trkpt><trkpt lat="40.26771272197584" lon="9.58051671990177"><ele>430.5</ele><time>2026-04-30T06:02:00.013Z</time></trkpt><trkpt lat="40.26781320371255" lon="9.580614059070788"><ele>435.0</ele><time>2026-04-30T06:02:01.013Z</time></trkpt><trkpt lat="40.26790984182779" lon="9.580732970220053"><ele>435.0</ele><time>2026-04-30T06:02:02.013Z</time></trkpt><trkpt lat="40.267987453171415" lon="9.580861133481095"><ele>435.0</ele><time>2026-04-30T06:02:03.013Z</time></trkpt><trkpt lat="40.26805195829974" lon="9.580984133066965"><ele>435.0</ele><time>2026-04-30T06:02:04.013Z</time></trkpt><trkpt lat="40.26808903827531" lon="9.581092347042599"><ele>435.0</ele><time>2026-04-30T06:02:05.013Z</time></trkpt><trkpt lat="40.268139375153694" lon="9.581241879594822"><ele>434.0</ele><time>2026-04-30T06:02:06.013Z</time></trkpt><trkpt lat="40.26812665486923" lon="9.58136784659407"><ele>433.0</ele><time>2026-04-30T06:02:07.013Z</time></trkpt><trkpt lat="40.2681618158914" lon="9.581548508794402"><ele>432.0</ele><time>2026-04-30T06:02:08.013Z</time></trkpt><trkpt lat="40.26812700113333" lon="9.581360942221234"><ele>431.0</ele><time>2026-04-30T06:02:09.013Z</time></trkpt><trkpt lat="40.26814924680721" lon="9.581488391929904"><ele>431.0</ele><time>2026-04-30T06:02:10.013Z</time></trkpt><trkpt lat="40.26818106651054" lon="9.581619149947336"><ele>431.0</ele><time>2026-04-30T06:02:11.013Z</time></trkpt><trkpt lat="40.268216153737924" lon="9.581741469056722"><ele>431.0</ele><time>2026-04-30T06:02:12.013Z</time></trkpt><trkpt lat="40.26825091574012" lon="9.581857315679954"><ele>431.0</ele><time>2026-04-30T06:02:13.013Z</time></trkpt><trkpt lat="40.26830433600335" lon="9.581959845597677"><ele>431.0</ele><time>2026-04-30T06:02:14.013Z</time></trkpt><trkpt lat="40.26837780595936" lon="9.58201212348366"><ele>434.99999999999994</ele><time>2026-04-30T06:02:15.013Z</time></trkpt><trkpt lat="40.26845375652094" lon="9.582061965929709"><ele>439.0</ele><time>2026-04-30T06:02:16.013Z</time></trkpt><trkpt lat="40.26852863146467" lon="9.582116402453666"><ele>443.0</ele><time>2026-04-30T06:02:17.013Z</time></trkpt><trkpt lat="40.26859261937136" lon="9.582205367112348"><ele>447.0</ele><time>2026-04-30T06:02:18.013Z</time></trkpt><trkpt lat="40.268673016825744" lon="9.582255762147073"><ele>450.99999999999994</ele><time>2026-04-30T06:02:19.013Z</time></trkpt><trkpt lat="40.26874169302746" lon="9.582301285186954"><ele>455.0</ele><time>2026-04-30T06:02:20.014Z</time></trkpt><trkpt lat="40.26881221807745" lon="9.582309692253629"><ele>454.99999999999994</ele><time>2026-04-30T06:02:21.014Z</time></trkpt><trkpt lat="40.26887459686874" lon="9.582384611225713"><ele>455.0</ele><time>2026-04-30T06:02:23.014Z</time></trkpt><trkpt lat="40.26881312587738" lon="9.582412926515659"><ele>455.0</ele><time>2026-04-30T06:02:24.014Z</time></trkpt><trkpt lat="40.268692742401484" lon="9.582427091447919"><ele>455.0</ele><time>2026-04-30T06:02:27.014Z</time></trkpt><trkpt lat="40.26863061632702" lon="9.58238650401447"><ele>454.99999999999994</ele><time>2026-04-30T06:02:28.014Z</time></trkpt><trkpt lat="40.2685802381708" lon="9.582322814035885"><ele>455.0</ele><time>2026-04-30T06:02:29.014Z</time></trkpt><trkpt lat="40.26851316877986" lon="9.582264641373479"><ele>455.0</ele><time>2026-04-30T06:02:30.014Z</time></trkpt><trkpt lat="40.268447720169256" lon="9.582202082549674"><ele>455.0</ele><time>2026-04-30T06:02:31.014Z</time></trkpt><trkpt lat="40.26836061835467" lon="9.582112780737969"><ele>455.0</ele><time>2026-04-30T06:02:32.014Z</time></trkpt><trkpt lat="40.268277323405876" lon="9.582111885492157"><ele>455.0</ele><time>2026-04-30T06:02:34.014Z</time></trkpt><trkpt lat="40.26823114498191" lon="9.58222749916894"><ele>455.0</ele><time>2026-04-30T06:02:37.014Z</time></trkpt><trkpt lat="40.26830052250899" lon="9.582324011774254"><ele>455.0</ele><time>2026-04-30T06:02:39.014Z</time></trkpt><trkpt lat="40.26838438733279" lon="9.582319517136286"><ele>455.0</ele><time>2026-04-30T06:02:40.014Z</time></trkpt><trkpt lat="40.26844225577632" lon="9.58236971364223"><ele>455.0</ele><time>2026-04-30T06:02:41.014Z</time></trkpt><trkpt lat="40.26850354011011" lon="9.582500076541198"><ele>455.0</ele><time>2026-04-30T06:02:43.014Z</time></trkpt><trkpt lat="40.26848584374906" lon="9.582598103280636"><ele>455.0</ele><time>2026-04-30T06:02:44.014Z</time></trkpt><trkpt lat="40.26854740188261" lon="9.582715321224905"><ele>454.99999999999994</ele><time>2026-04-30T06:02:46.014Z</time></trkpt><trkpt lat="40.268684812293834" lon="9.582748479002463"><ele>455.0</ele><time>2026-04-30T06:02:48.014Z</time></trkpt><trkpt lat="40.268749347776186" lon="9.582766051148036"><ele>455.0</ele><time>2026-04-30T06:02:49.014Z</time></trkpt><trkpt lat="40.268822670932344" lon="9.582789000253145"><ele>455.0</ele><time>2026-04-30T06:02:50.014Z</time></trkpt><trkpt lat="40.26889326794723" lon="9.582823236287549"><ele>454.99999999999994</ele><time>2026-04-30T06:02:51.014Z</time></trkpt><trkpt lat="40.268970124868716" lon="9.582882085627416"><ele>455.0</ele><time>2026-04-30T06:02:52.014Z</time></trkpt><trkpt lat="40.26902911562649" lon="9.582933838643815"><ele>456.49999999999994</ele><time>2026-04-30T06:02:53.015Z</time></trkpt><trkpt lat="40.26909107351607" lon="9.582987208145191"><ele>458.0</ele><time>2026-04-30T06:02:54.015Z</time></trkpt><trkpt lat="40.26914178374866" lon="9.58307087403315"><ele>459.5</ele><time>2026-04-30T06:02:55.015Z</time></trkpt><trkpt lat="40.2691801831786" lon="9.583161297186468"><ele>461.0</ele><time>2026-04-30T06:02:56.015Z</time></trkpt><trkpt lat="40.26919227977181" lon="9.58326870018116"><ele>462.49999999999994</ele><time>2026-04-30T06:02:57.015Z</time></trkpt><trkpt lat="40.26923577142329" lon="9.583352127013603"><ele>464.0</ele><time>2026-04-30T06:02:58.015Z</time></trkpt><trkpt lat="40.26928764310908" lon="9.583413855153394"><ele>464.0</ele><time>2026-04-30T06:02:59.015Z</time></trkpt><trkpt lat="40.26934698617163" lon="9.583457166249282"><ele>464.0</ele><time>2026-04-30T06:03:00.015Z</time></trkpt><trkpt lat="40.26941289398197" lon="9.583462931980062"><ele>464.0</ele><time>2026-04-30T06:03:01.015Z</time></trkpt><trkpt lat="40.2695422177731" lon="9.583449693723876"><ele>464.0</ele><time>2026-04-30T06:03:03.015Z</time></trkpt><trkpt lat="40.2696108651572" lon="9.583452435975838"><ele>464.0</ele><time>2026-04-30T06:03:04.015Z</time></trkpt><trkpt lat="40.26971230876544" lon="9.583542212451025"><ele>463.99999999999994</ele><time>2026-04-30T06:03:06.015Z</time></trkpt><trkpt lat="40.269749918694096" lon="9.583615729182576"><ele>464.0</ele><time>2026-04-30T06:03:07.015Z</time></trkpt><trkpt lat="40.26978006637948" lon="9.583693709179766"><ele>464.0</ele><time>2026-04-30T06:03:08.015Z</time></trkpt><trkpt lat="40.269803601270254" lon="9.583778646060445"><ele>464.0</ele><time>2026-04-30T06:03:10.015Z</time></trkpt><trkpt lat="40.269790094895576" lon="9.583860455165128"><ele>463.99999999999994</ele><time>2026-04-30T06:03:12.015Z</time></trkpt><trkpt lat="40.2698272252515" lon="9.584013638982633"><ele>464.0</ele><time>2026-04-30T06:03:14.015Z</time></trkpt><trkpt lat="40.26986859247672" lon="9.584104999669288"><ele>464.2</ele><time>2026-04-30T06:03:15.015Z</time></trkpt><trkpt lat="40.26993445984491" lon="9.584185431836275"><ele>464.4</ele><time>2026-04-30T06:03:16.015Z</time></trkpt><trkpt lat="40.27000476788943" lon="9.584271089985828"><ele>464.6</ele><time>2026-04-30T06:03:17.015Z</time></trkpt><trkpt lat="40.27008110017876" lon="9.584361406214342"><ele>464.8</ele><time>2026-04-30T06:03:18.015Z</time></trkpt><trkpt lat="40.27016363933399" lon="9.58445759183438"><ele>465.0</ele><time>2026-04-30T06:03:19.015Z</time></trkpt><trkpt lat="40.27024608267669" lon="9.584551676906612"><ele>470.4</ele><time>2026-04-30T06:03:20.015Z</time></trkpt><trkpt lat="40.27032237920033" lon="9.584634033451561"><ele>475.8</ele><time>2026-04-30T06:03:21.015Z</time></trkpt><trkpt lat="40.270371629258115" lon="9.584726696570447"><ele>481.20000000000005</ele><time>2026-04-30T06:03:22.015Z</time></trkpt><trkpt lat="40.27045339329721" lon="9.584780276644885"><ele>486.6</ele><time>2026-04-30T06:03:23.015Z</time></trkpt><trkpt lat="40.27053438351405" lon="9.584834100653936"><ele>492.0</ele><time>2026-04-30T06:03:24.015Z</time></trkpt><trkpt lat="40.270606046533125" lon="9.58489408301527"><ele>488.40000000000003</ele><time>2026-04-30T06:03:25.015Z</time></trkpt><trkpt lat="40.270665084597724" lon="9.584974989087243"><ele>484.80000000000007</ele><time>2026-04-30T06:03:26.015Z</time></trkpt><trkpt lat="40.270712675174856" lon="9.58507763298205"><ele>481.2</ele><time>2026-04-30T06:03:27.016Z</time></trkpt><trkpt lat="40.270752007767555" lon="9.585201266705264"><ele>477.6</ele><time>2026-04-30T06:03:28.016Z</time></trkpt><trkpt lat="40.27078938430764" lon="9.585324918194056"><ele>474.0</ele><time>2026-04-30T06:03:29.016Z</time></trkpt><trkpt lat="40.270827630962984" lon="9.585437625264154"><ele>474.0</ele><time>2026-04-30T06:03:30.016Z</time></trkpt><trkpt lat="40.27088710356033" lon="9.585534438870832"><ele>474.0</ele><time>2026-04-30T06:03:31.016Z</time></trkpt><trkpt lat="40.27095416101184" lon="9.585642011888861"><ele>474.0</ele><time>2026-04-30T06:03:32.016Z</time></trkpt><trkpt lat="40.27103717285666" lon="9.585736362484893"><ele>474.0</ele><time>2026-04-30T06:03:33.016Z</time></trkpt><trkpt lat="40.27108488853052" lon="9.585864933426686"><ele>474.0</ele><time>2026-04-30T06:03:34.016Z</time></trkpt><trkpt lat="40.27112957132095" lon="9.58600140631303"><ele>474.0</ele><time>2026-04-30T06:03:35.016Z</time></trkpt><trkpt lat="40.27116596535132" lon="9.586136980643635"><ele>474.0</ele><time>2026-04-30T06:03:36.016Z</time></trkpt><trkpt lat="40.27118810703828" lon="9.586291421458487"><ele>474.0</ele><time>2026-04-30T06:03:37.016Z</time></trkpt><trkpt lat="40.27121896980673" lon="9.586447598948702"><ele>474.0</ele><time>2026-04-30T06:03:38.016Z</time></trkpt><trkpt lat="40.27125670629746" lon="9.586597313621475"><ele>473.0</ele><time>2026-04-30T06:03:39.016Z</time></trkpt><trkpt lat="40.2713009109919" lon="9.586744406120705"><ele>472.0</ele><time>2026-04-30T06:03:40.016Z</time></trkpt><trkpt lat="40.27137276838727" lon="9.586884072854971"><ele>471.0</ele><time>2026-04-30T06:03:41.016Z</time></trkpt><trkpt lat="40.27142883694208" lon="9.587017879712494"><ele>470.0</ele><time>2026-04-30T06:03:42.016Z</time></trkpt><trkpt lat="40.27150344675693" lon="9.587133498486226"><ele>470.0</ele><time>2026-04-30T06:03:43.016Z</time></trkpt><trkpt lat="40.27156785963056" lon="9.587242292452878"><ele>470.0</ele><time>2026-04-30T06:03:44.016Z</time></trkpt><trkpt lat="40.27164726583886" lon="9.587330968514454"><ele>470.0</ele><time>2026-04-30T06:03:45.016Z</time></trkpt><trkpt lat="40.271750684304976" lon="9.58739610549323"><ele>470.0</ele><time>2026-04-30T06:03:46.016Z</time></trkpt><trkpt lat="40.27185357096529" lon="9.587457140774868"><ele>470.0</ele><time>2026-04-30T06:03:47.016Z</time></trkpt><trkpt lat="40.27197028228945" lon="9.587497833325614"><ele>470.0</ele><time>2026-04-30T06:03:48.016Z</time></trkpt><trkpt lat="40.27207618471352" lon="9.58757221639775"><ele>470.0</ele><time>2026-04-30T06:03:49.016Z</time></trkpt><trkpt lat="40.27217826621779" lon="9.587653704311544"><ele>470.0</ele><time>2026-04-30T06:03:50.016Z</time></trkpt><trkpt lat="40.272268698431745" lon="9.587753214539035"><ele>470.0</ele><time>2026-04-30T06:03:51.016Z</time></trkpt><trkpt lat="40.27235457473337" lon="9.587843272970602"><ele>468.4</ele><time>2026-04-30T06:03:52.016Z</time></trkpt><trkpt lat="40.27240804798135" lon="9.587937482402083"><ele>466.8</ele><time>2026-04-30T06:03:53.016Z</time></trkpt><trkpt lat="40.2724458645329" lon="9.588039657887698"><ele>465.20000000000005</ele><time>2026-04-30T06:03:54.016Z</time></trkpt><trkpt lat="40.27242511998125" lon="9.588174519392819"><ele>463.6</ele><time>2026-04-30T06:03:55.016Z</time></trkpt><trkpt lat="40.2724413916939" lon="9.588313600884215"><ele>462.0</ele><time>2026-04-30T06:03:56.016Z</time></trkpt><trkpt lat="40.27247599565585" lon="9.588424754219877"><ele>462.0</ele><time>2026-04-30T06:03:57.016Z</time></trkpt><trkpt lat="40.2725264216418" lon="9.588523412986335"><ele>462.00000000000006</ele><time>2026-04-30T06:03:58.016Z</time></trkpt><trkpt lat="40.27258248462922" lon="9.588623378055628"><ele>462.00000000000006</ele><time>2026-04-30T06:03:59.016Z</time></trkpt><trkpt lat="40.27267777503608" lon="9.588688530689664"><ele>462.0</ele><time>2026-04-30T06:04:00.017Z</time></trkpt><trkpt lat="40.27277581946548" lon="9.588752789201141"><ele>462.0</ele><time>2026-04-30T06:04:01.017Z</time></trkpt><trkpt lat="40.27287388788613" lon="9.588812344158855"><ele>458.6</ele><time>2026-04-30T06:04:02.017Z</time></trkpt><trkpt lat="40.27295226109219" lon="9.588887438929307"><ele>455.20000000000005</ele><time>2026-04-30T06:04:03.017Z</time></trkpt><trkpt lat="40.27299840469214" lon="9.588983712826902"><ele>451.8</ele><time>2026-04-30T06:04:04.017Z</time></trkpt><trkpt lat="40.273034989146346" lon="9.589098516587676"><ele>448.4</ele><time>2026-04-30T06:04:05.017Z</time></trkpt><trkpt lat="40.273064890481834" lon="9.589228999781259"><ele>445.0</ele><time>2026-04-30T06:04:06.017Z</time></trkpt><trkpt lat="40.273115900098546" lon="9.589386232060585"><ele>448.0</ele><time>2026-04-30T06:04:07.017Z</time></trkpt><trkpt lat="40.27314456174668" lon="9.589553448418393"><ele>451.0</ele><time>2026-04-30T06:04:08.017Z</time></trkpt><trkpt lat="40.27316641058202" lon="9.589721194040553"><ele>454.0</ele><time>2026-04-30T06:04:09.017Z</time></trkpt><trkpt lat="40.27317734800557" lon="9.589891716521505"><ele>457.0</ele><time>2026-04-30T06:04:10.017Z</time></trkpt><trkpt lat="40.273216287313105" lon="9.59004606430282"><ele>457.0</ele><time>2026-04-30T06:04:11.017Z</time></trkpt><trkpt lat="40.27325955416449" lon="9.590191339283889"><ele>457.0</ele><time>2026-04-30T06:04:12.017Z</time></trkpt><trkpt lat="40.27330504034376" lon="9.59033910846539"><ele>457.0</ele><time>2026-04-30T06:04:13.017Z</time></trkpt><trkpt lat="40.27336497829067" lon="9.590471606467858"><ele>457.0</ele><time>2026-04-30T06:04:14.017Z</time></trkpt><trkpt lat="40.273456311435815" lon="9.590601982438487"><ele>461.0</ele><time>2026-04-30T06:04:15.017Z</time></trkpt><trkpt lat="40.27354657411247" lon="9.590736132561304"><ele>465.0</ele><time>2026-04-30T06:04:16.017Z</time></trkpt><trkpt lat="40.27365657908432" lon="9.590868662106425"><ele>469.0</ele><time>2026-04-30T06:04:17.017Z</time></trkpt><trkpt lat="40.27375479650817" lon="9.590997194841975"><ele>473.0</ele><time>2026-04-30T06:04:18.017Z</time></trkpt><trkpt lat="40.27385398504292" lon="9.591127402042504"><ele>471.75</ele><time>2026-04-30T06:04:19.017Z</time></trkpt><trkpt lat="40.27395304754463" lon="9.591264528905773"><ele>470.5</ele><time>2026-04-30T06:04:20.017Z</time></trkpt><trkpt lat="40.2740514974602" lon="9.591388005376574"><ele>469.25</ele><time>2026-04-30T06:04:21.017Z</time></trkpt><trkpt lat="40.27411204188823" lon="9.591510521481863"><ele>468.0</ele><time>2026-04-30T06:04:22.017Z</time></trkpt><trkpt lat="40.27421908126815" lon="9.591619629079592"><ele>468.0</ele><time>2026-04-30T06:04:23.017Z</time></trkpt><trkpt lat="40.27434175973512" lon="9.59173038553525"><ele>468.0</ele><time>2026-04-30T06:04:24.017Z</time></trkpt><trkpt lat="40.274460133600506" lon="9.591836997922828"><ele>468.0</ele><time>2026-04-30T06:04:25.017Z</time></trkpt><trkpt lat="40.27459761475129" lon="9.591936044320246"><ele>468.0</ele><time>2026-04-30T06:04:26.017Z</time></trkpt><trkpt lat="40.27471231443011" lon="9.592037191359342"><ele>470.0</ele><time>2026-04-30T06:04:27.017Z</time></trkpt><trkpt lat="40.2748314790166" lon="9.592118217788082"><ele>472.0</ele><time>2026-04-30T06:04:28.017Z</time></trkpt><trkpt lat="40.274943298825285" lon="9.592196119639757"><ele>474.0</ele><time>2026-04-30T06:04:29.017Z</time></trkpt><trkpt lat="40.275050811288075" lon="9.592254204037506"><ele>476.0</ele><time>2026-04-30T06:04:30.017Z</time></trkpt><trkpt lat="40.27515723720744" lon="9.592292041519833"><ele>476.0</ele><time>2026-04-30T06:04:31.017Z</time></trkpt><trkpt lat="40.2752607409565" lon="9.592307509413754"><ele>476.0</ele><time>2026-04-30T06:04:32.017Z</time></trkpt><trkpt lat="40.27534319603821" lon="9.592329006085354"><ele>476.0</ele><time>2026-04-30T06:04:33.018Z</time></trkpt><trkpt lat="40.27542898398991" lon="9.592385483635294"><ele>476.0</ele><time>2026-04-30T06:04:35.018Z</time></trkpt><trkpt lat="40.275504795375916" lon="9.592396076262949"><ele>476.0</ele><time>2026-04-30T06:04:38.018Z</time></trkpt><trkpt lat="40.275570998652626" lon="9.592571603760454"><ele>476.0</ele><time>2026-04-30T06:04:44.018Z</time></trkpt><trkpt lat="40.27564500911804" lon="9.592717281426312"><ele>476.0</ele><time>2026-04-30T06:04:46.018Z</time></trkpt><trkpt lat="40.275714405411605" lon="9.592846237632887"><ele>476.0</ele><time>2026-04-30T06:04:47.018Z</time></trkpt><trkpt lat="40.27551710306918" lon="9.592780959083356"><ele>489.3333333333333</ele><time>2026-04-30T06:04:48.018Z</time></trkpt><trkpt lat="40.27579015939154" lon="9.592903745009563"><ele>502.66666666666663</ele><time>2026-04-30T06:04:49.153Z</time></trkpt><trkpt lat="40.275875342844564" lon="9.592995649254869"><ele>516.0</ele><time>2026-04-30T06:04:50.152Z</time></trkpt><trkpt lat="40.2759595613483" lon="9.59308061558167"><ele>456.0</ele><time>2026-04-30T06:04:51.153Z</time></trkpt><trkpt lat="40.27480851448237" lon="9.597279063810381"><ele>456.0</ele><time>2026-04-30T06:05:12.019Z</time></trkpt><trkpt lat="40.27477711703918" lon="9.597398296434056"><ele>456.0</ele><time>2026-04-30T06:05:13.019Z</time></trkpt><trkpt lat="40.274895909661325" lon="9.597584561038"><ele>456.0</ele><time>2026-04-30T06:05:14.019Z</time></trkpt><trkpt lat="40.274783761929584" lon="9.59767618717587"><ele>456.0</ele><time>2026-04-30T06:05:15.019Z</time></trkpt><trkpt lat="40.274702811784564" lon="9.597721996940326"><ele>455.75</ele><time>2026-04-30T06:05:16.019Z</time></trkpt><trkpt lat="40.27457886951337" lon="9.597724957646163"><ele>455.5</ele><time>2026-04-30T06:05:17.019Z</time></trkpt><trkpt lat="40.27447860145512" lon="9.59780946809509"><ele>455.25</ele><time>2026-04-30T06:05:18.019Z</time></trkpt><trkpt lat="40.274348216201446" lon="9.597830452150161"><ele>455.0</ele><time>2026-04-30T06:05:19.019Z</time></trkpt><trkpt lat="40.274211160989935" lon="9.597830013569416"><ele>455.0</ele><time>2026-04-30T06:05:20.019Z</time></trkpt><trkpt lat="40.27404638319638" lon="9.597823150103501"><ele>455.0</ele><time>2026-04-30T06:05:21.019Z</time></trkpt><trkpt lat="40.27387571366217" lon="9.597816231834683"><ele>455.0</ele><time>2026-04-30T06:05:22.019Z</time></trkpt><trkpt lat="40.27374669302205" lon="9.597878321258866"><ele>447.5</ele><time>2026-04-30T06:05:24.019Z</time></trkpt><trkpt lat="40.27362725999174" lon="9.597873009521178"><ele>440.0</ele><time>2026-04-30T06:05:25.019Z</time></trkpt><trkpt lat="40.27350660780581" lon="9.597865463158119"><ele>432.5</ele><time>2026-04-30T06:05:26.019Z</time></trkpt><trkpt lat="40.27338603016053" lon="9.597859679322713"><ele>425.0</ele><time>2026-04-30T06:05:27.019Z</time></trkpt><trkpt lat="40.273269706128936" lon="9.597854644980822"><ele>425.0</ele><time>2026-04-30T06:05:28.019Z</time></trkpt><trkpt lat="40.27315519407332" lon="9.597848525070859"><ele>425.0</ele><time>2026-04-30T06:05:29.019Z</time></trkpt><trkpt lat="40.27304366102905" lon="9.597847909804704"><ele>425.0</ele><time>2026-04-30T06:05:30.019Z</time></trkpt><trkpt lat="40.27293693581998" lon="9.597861997630853"><ele>425.0</ele><time>2026-04-30T06:05:31.019Z</time></trkpt><trkpt lat="40.27284773764276" lon="9.597906196939123"><ele>425.0</ele><time>2026-04-30T06:05:32.019Z</time></trkpt><trkpt lat="40.27276797788549" lon="9.597966295215615"><ele>428.2</ele><time>2026-04-30T06:05:33.019Z</time></trkpt><trkpt lat="40.27270630521546" lon="9.59805178960865"><ele>431.4</ele><time>2026-04-30T06:05:34.019Z</time></trkpt><trkpt lat="40.272653208516154" lon="9.598171445523153"><ele>434.6</ele><time>2026-04-30T06:05:35.019Z</time></trkpt><trkpt lat="40.2725994971578" lon="9.598304158607146"><ele>437.8</ele><time>2026-04-30T06:05:36.019Z</time></trkpt><trkpt lat="40.27254182258492" lon="9.598434887548187"><ele>441.0</ele><time>2026-04-30T06:05:37.019Z</time></trkpt><trkpt lat="40.27248232650346" lon="9.59857395570741"><ele>437.4</ele><time>2026-04-30T06:05:38.019Z</time></trkpt><trkpt lat="40.27242100511674" lon="9.598704832142678"><ele>433.8</ele><time>2026-04-30T06:05:39.019Z</time></trkpt><trkpt lat="40.27236759137238" lon="9.59882177864553"><ele>430.2</ele><time>2026-04-30T06:05:40.02Z</time></trkpt><trkpt lat="40.27233043123469" lon="9.598923929665933"><ele>426.59999999999997</ele><time>2026-04-30T06:05:41.02Z</time></trkpt><trkpt lat="40.27231171456937" lon="9.599016673176784"><ele>423.0</ele><time>2026-04-30T06:05:42.02Z</time></trkpt><trkpt lat="40.272324394016614" lon="9.599108856021912"><ele>423.0</ele><time>2026-04-30T06:05:43.02Z</time></trkpt><trkpt lat="40.27236220651871" lon="9.599176986735854"><ele>423.0</ele><time>2026-04-30T06:05:44.02Z</time></trkpt><trkpt lat="40.27248750381749" lon="9.599230819950693"><ele>423.0</ele><time>2026-04-30T06:05:46.02Z</time></trkpt><trkpt lat="40.27263522243776" lon="9.599207039492715"><ele>423.0</ele><time>2026-04-30T06:05:47.02Z</time></trkpt><trkpt lat="40.272685575716984" lon="9.599116002214746"><ele>423.0</ele><time>2026-04-30T06:05:48.02Z</time></trkpt><trkpt lat="40.27270837908497" lon="9.599000449652298"><ele>423.0</ele><time>2026-04-30T06:05:49.02Z</time></trkpt><trkpt lat="40.27275071998964" lon="9.598864937986052"><ele>423.0</ele><time>2026-04-30T06:05:50.02Z</time></trkpt><trkpt lat="40.27280386142233" lon="9.598722181284678"><ele>423.0</ele><time>2026-04-30T06:05:51.02Z</time></trkpt><trkpt lat="40.27286741099819" lon="9.598596543652702"><ele>423.0</ele><time>2026-04-30T06:05:52.02Z</time></trkpt><trkpt lat="40.27292739505202" lon="9.598483731835595"><ele>423.3333333333333</ele><time>2026-04-30T06:05:53.02Z</time></trkpt><trkpt lat="40.27298744701951" lon="9.598382654454102"><ele>423.66666666666663</ele><time>2026-04-30T06:05:54.02Z</time></trkpt><trkpt lat="40.27303742557374" lon="9.598303868701189"><ele>424.0</ele><time>2026-04-30T06:05:55.02Z</time></trkpt><trkpt lat="40.27309570649984" lon="9.598242684683827"><ele>424.3333333333333</ele><time>2026-04-30T06:05:56.02Z</time></trkpt><trkpt lat="40.27316850802479" lon="9.598192919273362"><ele>424.66666666666663</ele><time>2026-04-30T06:05:57.02Z</time></trkpt><trkpt lat="40.273255280523166" lon="9.598258808994018"><ele>425.0</ele><time>2026-04-30T06:05:58.02Z</time></trkpt><trkpt lat="40.27336833888579" lon="9.598281682446668"><ele>425.0</ele><time>2026-04-30T06:05:59.02Z</time></trkpt><trkpt lat="40.27346475949075" lon="9.59831773993128"><ele>425.0</ele><time>2026-04-30T06:06:00.02Z</time></trkpt><trkpt lat="40.27358547227256" lon="9.598369245089273"><ele>425.0</ele><time>2026-04-30T06:06:01.02Z</time></trkpt><trkpt lat="40.27369383160229" lon="9.598431300154477"><ele>425.0</ele><time>2026-04-30T06:06:02.02Z</time></trkpt><trkpt lat="40.27378882242061" lon="9.598505540249496"><ele>425.0</ele><time>2026-04-30T06:06:03.02Z</time></trkpt><trkpt lat="40.27387029735164" lon="9.598593100742576"><ele>425.0</ele><time>2026-04-30T06:06:04.02Z</time></trkpt><trkpt lat="40.273919255994976" lon="9.59871487970092"><ele>425.0</ele><time>2026-04-30T06:06:05.02Z</time></trkpt><trkpt lat="40.2739875769851" lon="9.598825746038033"><ele>425.0</ele><time>2026-04-30T06:06:06.02Z</time></trkpt><trkpt lat="40.2740417390967" lon="9.598918421088358"><ele>425.0</ele><time>2026-04-30T06:06:07.02Z</time></trkpt><trkpt lat="40.274117878538824" lon="9.59897702824487"><ele>419.75</ele><time>2026-04-30T06:06:08.02Z</time></trkpt><trkpt lat="40.274208217615296" lon="9.599008875296333"><ele>414.5</ele><time>2026-04-30T06:06:09.02Z</time></trkpt><trkpt lat="40.27431295532956" lon="9.599027096071014"><ele>409.25</ele><time>2026-04-30T06:06:10.02Z</time></trkpt><trkpt lat="40.274428512656826" lon="9.599031670317203"><ele>404.0</ele><time>2026-04-30T06:06:11.02Z</time></trkpt><trkpt lat="40.274566627878" lon="9.599026274428807"><ele>404.0</ele><time>2026-04-30T06:06:12.02Z</time></trkpt><trkpt lat="40.2746984923841" lon="9.599058107535727"><ele>404.0</ele><time>2026-04-30T06:06:13.021Z</time></trkpt><trkpt lat="40.27480738989536" lon="9.599062519136298"><ele>404.0</ele><time>2026-04-30T06:06:14.021Z</time></trkpt><trkpt lat="40.27490888092794" lon="9.599093557223439"><ele>404.0</ele><time>2026-04-30T06:06:15.021Z</time></trkpt><trkpt lat="40.27501558395331" lon="9.599165974794936"><ele>405.0</ele><time>2026-04-30T06:06:16.021Z</time></trkpt><trkpt lat="40.27512447663391" lon="9.59925090153346"><ele>406.0</ele><time>2026-04-30T06:06:17.021Z</time></trkpt><trkpt lat="40.27522267209825" lon="9.599314878731281"><ele>407.0</ele><time>2026-04-30T06:06:18.021Z</time></trkpt><trkpt lat="40.27530189596429" lon="9.599377232984633"><ele>408.0</ele><time>2026-04-30T06:06:19.021Z</time></trkpt><trkpt lat="40.27536202515721" lon="9.599441403713207"><ele>409.0</ele><time>2026-04-30T06:06:20.021Z</time></trkpt><trkpt lat="40.27539195609245" lon="9.599527767193196"><ele>407.0</ele><time>2026-04-30T06:06:21.021Z</time></trkpt><trkpt lat="40.27537339722774" lon="9.599619696672647"><ele>405.0</ele><time>2026-04-30T06:06:22.021Z</time></trkpt><trkpt lat="40.27528247965635" lon="9.599734933803669"><ele>403.0</ele><time>2026-04-30T06:06:24.021Z</time></trkpt><trkpt lat="40.275207558203675" lon="9.599748082795083"><ele>401.0</ele><time>2026-04-30T06:06:25.021Z</time></trkpt><trkpt lat="40.27512688800509" lon="9.599732229364957"><ele>399.0</ele><time>2026-04-30T06:06:26.021Z</time></trkpt><trkpt lat="40.27504704769834" lon="9.599648616018676"><ele>399.0</ele><time>2026-04-30T06:06:27.021Z</time></trkpt><trkpt lat="40.27493891918488" lon="9.599610414718143"><ele>399.0</ele><time>2026-04-30T06:06:28.021Z</time></trkpt><trkpt lat="40.274815944708344" lon="9.599547273574325"><ele>399.0</ele><time>2026-04-30T06:06:29.021Z</time></trkpt><trkpt lat="40.27468444943289" lon="9.599501932138647"><ele>399.0</ele><time>2026-04-30T06:06:30.021Z</time></trkpt><trkpt lat="40.27455180711615" lon="9.599470144052953"><ele>400.25</ele><time>2026-04-30T06:06:31.021Z</time></trkpt><trkpt lat="40.27442505931619" lon="9.599460827703847"><ele>401.5</ele><time>2026-04-30T06:06:32.021Z</time></trkpt><trkpt lat="40.27428983074096" lon="9.599454330832819"><ele>402.75</ele><time>2026-04-30T06:06:33.021Z</time></trkpt><trkpt lat="40.274157547064576" lon="9.599446072031995"><ele>404.0</ele><time>2026-04-30T06:06:34.021Z</time></trkpt><trkpt lat="40.27404316333042" lon="9.599423221436924"><ele>403.6</ele><time>2026-04-30T06:06:35.021Z</time></trkpt><trkpt lat="40.27392804651835" lon="9.59936488551099"><ele>403.2</ele><time>2026-04-30T06:06:36.021Z</time></trkpt><trkpt lat="40.273828704720025" lon="9.599303213192636"><ele>402.8</ele><time>2026-04-30T06:06:37.021Z</time></trkpt><trkpt lat="40.273731215831745" lon="9.599229898812027"><ele>402.40000000000003</ele><time>2026-04-30T06:06:38.021Z</time></trkpt><trkpt lat="40.27364696188797" lon="9.59918774215107"><ele>402.0</ele><time>2026-04-30T06:06:39.021Z</time></trkpt><trkpt lat="40.27358029699513" lon="9.599191096903034"><ele>402.0</ele><time>2026-04-30T06:06:40.021Z</time></trkpt><trkpt lat="40.27351165714691" lon="9.599210254018091"><ele>402.0</ele><time>2026-04-30T06:06:41.021Z</time></trkpt><trkpt lat="40.273462006719384" lon="9.599261311517212"><ele>402.0</ele><time>2026-04-30T06:06:42.021Z</time></trkpt><trkpt lat="40.27341559715364" lon="9.599374573463713"><ele>402.0</ele><time>2026-04-30T06:06:43.021Z</time></trkpt><trkpt lat="40.27337387105466" lon="9.599509995916712"><ele>402.0</ele><time>2026-04-30T06:06:44.021Z</time></trkpt><trkpt lat="40.273343332554944" lon="9.599647216829663"><ele>398.0</ele><time>2026-04-30T06:06:45.021Z</time></trkpt><trkpt lat="40.2733243546215" lon="9.599799840852908"><ele>394.0</ele><time>2026-04-30T06:06:46.021Z</time></trkpt><trkpt lat="40.27334262776643" lon="9.59997112966212"><ele>390.0</ele><time>2026-04-30T06:06:47.022Z</time></trkpt><trkpt lat="40.27335668812724" lon="9.600146005780381"><ele>386.0</ele><time>2026-04-30T06:06:48.022Z</time></trkpt><trkpt lat="40.27335698244867" lon="9.60031814835969"><ele>384.0</ele><time>2026-04-30T06:06:49.022Z</time></trkpt><trkpt lat="40.27335969617802" lon="9.600464745609665"><ele>382.0</ele><time>2026-04-30T06:06:50.022Z</time></trkpt><trkpt lat="40.27336264362829" lon="9.600600637639534"><ele>380.0</ele><time>2026-04-30T06:06:51.022Z</time></trkpt><trkpt lat="40.273355353902595" lon="9.60072816117013"><ele>378.0</ele><time>2026-04-30T06:06:52.022Z</time></trkpt><trkpt lat="40.27333292333132" lon="9.600876905137563"><ele>376.0</ele><time>2026-04-30T06:06:53.022Z</time></trkpt><trkpt lat="40.27328178595001" lon="9.60101127519942"><ele>376.0</ele><time>2026-04-30T06:06:54.022Z</time></trkpt><trkpt lat="40.27318673614633" lon="9.601125667966246"><ele>376.0</ele><time>2026-04-30T06:06:55.022Z</time></trkpt><trkpt lat="40.273121897106705" lon="9.601256189115661"><ele>376.0</ele><time>2026-04-30T06:06:56.022Z</time></trkpt><trkpt lat="40.273039013675316" lon="9.601367307759979"><ele>376.0</ele><time>2026-04-30T06:06:57.022Z</time></trkpt><trkpt lat="40.27295244182625" lon="9.601470016547525"><ele>373.75</ele><time>2026-04-30T06:06:58.022Z</time></trkpt><trkpt lat="40.27285372811211" lon="9.601554807644305"><ele>371.5</ele><time>2026-04-30T06:06:59.022Z</time></trkpt><trkpt lat="40.27273957066981" lon="9.601625443106382"><ele>369.25</ele><time>2026-04-30T06:07:00.022Z</time></trkpt><trkpt lat="40.27261553583488" lon="9.601674336477789"><ele>367.0</ele><time>2026-04-30T06:07:01.022Z</time></trkpt><trkpt lat="40.272482933596315" lon="9.601714006631994"><ele>367.0</ele><time>2026-04-30T06:07:02.022Z</time></trkpt><trkpt lat="40.272345883315175" lon="9.60174850589358"><ele>367.0</ele><time>2026-04-30T06:07:03.022Z</time></trkpt><trkpt lat="40.27220761225774" lon="9.601796432668165"><ele>367.0</ele><time>2026-04-30T06:07:04.022Z</time></trkpt><trkpt lat="40.27208501824351" lon="9.601848176373974"><ele>367.0</ele><time>2026-04-30T06:07:05.022Z</time></trkpt><trkpt lat="40.27196087983794" lon="9.601918683054308"><ele>363.75</ele><time>2026-04-30T06:07:06.022Z</time></trkpt><trkpt lat="40.2718380081703" lon="9.602001318489823"><ele>360.5</ele><time>2026-04-30T06:07:07.022Z</time></trkpt><trkpt lat="40.27171582242484" lon="9.602085801651274"><ele>357.25</ele><time>2026-04-30T06:07:08.022Z</time></trkpt><trkpt lat="40.271606479698484" lon="9.602187752928517"><ele>354.0</ele><time>2026-04-30T06:07:09.022Z</time></trkpt><trkpt lat="40.27150432608596" lon="9.60228776692523"><ele>353.5</ele><time>2026-04-30T06:07:10.022Z</time></trkpt><trkpt lat="40.271411303921305" lon="9.602420124839105"><ele>353.0</ele><time>2026-04-30T06:07:11.022Z</time></trkpt><trkpt lat="40.27132608341984" lon="9.60257023751306"><ele>352.5</ele><time>2026-04-30T06:07:12.022Z</time></trkpt><trkpt lat="40.27125919573315" lon="9.602741651621866"><ele>352.0</ele><time>2026-04-30T06:07:13.022Z</time></trkpt><trkpt lat="40.2711740381711" lon="9.602908024182863"><ele>352.0</ele><time>2026-04-30T06:07:14.022Z</time></trkpt><trkpt lat="40.271096413940725" lon="9.60306893477652"><ele>352.0</ele><time>2026-04-30T06:07:15.022Z</time></trkpt><trkpt lat="40.2710247532196" lon="9.603223582682203"><ele>352.0</ele><time>2026-04-30T06:07:16.022Z</time></trkpt><trkpt lat="40.270955204694886" lon="9.603370715937194"><ele>352.0</ele><time>2026-04-30T06:07:17.022Z</time></trkpt><trkpt lat="40.27088160774595" lon="9.60350943930902"><ele>352.0</ele><time>2026-04-30T06:07:18.022Z</time></trkpt><trkpt lat="40.27080594116302" lon="9.603626832676653"><ele>352.0</ele><time>2026-04-30T06:07:19.022Z</time></trkpt><trkpt lat="40.27072780894361" lon="9.603722339194464"><ele>352.0</ele><time>2026-04-30T06:07:20.023Z</time></trkpt><trkpt lat="40.27062746345728" lon="9.603765367291194"><ele>352.0</ele><time>2026-04-30T06:07:21.023Z</time></trkpt><trkpt lat="40.270566650530085" lon="9.603846785212847"><ele>352.0</ele><time>2026-04-30T06:07:22.023Z</time></trkpt><trkpt lat="40.270522475980556" lon="9.603910712386163"><ele>352.8</ele><time>2026-04-30T06:07:23.023Z</time></trkpt><trkpt lat="40.27052814411432" lon="9.60405657955234"><ele>353.6</ele><time>2026-04-30T06:07:25.023Z</time></trkpt><trkpt lat="40.27063046690086" lon="9.604161789331146"><ele>354.40000000000003</ele><time>2026-04-30T06:07:27.023Z</time></trkpt><trkpt lat="40.27069408954631" lon="9.60418111237948"><ele>355.20000000000005</ele><time>2026-04-30T06:07:28.023Z</time></trkpt><trkpt lat="40.27075914366299" lon="9.604148106042139"><ele>356.0</ele><time>2026-04-30T06:07:29.023Z</time></trkpt><trkpt lat="40.27082545970807" lon="9.604084237770829"><ele>351.5</ele><time>2026-04-30T06:07:30.023Z</time></trkpt><trkpt lat="40.27089907341614" lon="9.603997183346255"><ele>347.0</ele><time>2026-04-30T06:07:31.023Z</time></trkpt><trkpt lat="40.27098759478856" lon="9.603915265223236"><ele>342.5</ele><time>2026-04-30T06:07:32.023Z</time></trkpt><trkpt lat="40.271089741431844" lon="9.60383687174911"><ele>338.0</ele><time>2026-04-30T06:07:33.023Z</time></trkpt><trkpt lat="40.27120189736097" lon="9.603757511486771"><ele>338.0</ele><time>2026-04-30T06:07:34.023Z</time></trkpt><trkpt lat="40.27132652563482" lon="9.603691848326774"><ele>338.0</ele><time>2026-04-30T06:07:35.023Z</time></trkpt><trkpt lat="40.27144845584924" lon="9.60362167403527"><ele>338.0</ele><time>2026-04-30T06:07:36.023Z</time></trkpt><trkpt lat="40.27156371289106" lon="9.603551017030394"><ele>338.0</ele><time>2026-04-30T06:07:37.023Z</time></trkpt><trkpt lat="40.27167065551993" lon="9.603485428741969"><ele>338.2</ele><time>2026-04-30T06:07:38.023Z</time></trkpt><trkpt lat="40.27176575087445" lon="9.603428095935094"><ele>338.4</ele><time>2026-04-30T06:07:39.023Z</time></trkpt><trkpt lat="40.27185136457514" lon="9.603395893600538"><ele>338.59999999999997</ele><time>2026-04-30T06:07:40.023Z</time></trkpt><trkpt lat="40.27193931847276" lon="9.603387044879659"><ele>338.79999999999995</ele><time>2026-04-30T06:07:41.023Z</time></trkpt><trkpt lat="40.27202028621123" lon="9.60340782058943"><ele>339.0</ele><time>2026-04-30T06:07:42.023Z</time></trkpt><trkpt lat="40.27209801919889" lon="9.603468223066383"><ele>339.0</ele><time>2026-04-30T06:07:43.023Z</time></trkpt><trkpt lat="40.272174185100425" lon="9.603574750618781"><ele>339.0</ele><time>2026-04-30T06:07:44.023Z</time></trkpt><trkpt lat="40.27226437491564" lon="9.603657242150643"><ele>339.0</ele><time>2026-04-30T06:07:45.023Z</time></trkpt><trkpt lat="40.272340257381614" lon="9.603754909012228"><ele>339.0</ele><time>2026-04-30T06:07:46.023Z</time></trkpt><trkpt lat="40.27242709022533" lon="9.60381135546721"><ele>339.0</ele><time>2026-04-30T06:07:47.023Z</time></trkpt><trkpt lat="40.27250555632499" lon="9.603835607596274"><ele>336.1666666666667</ele><time>2026-04-30T06:07:48.023Z</time></trkpt><trkpt lat="40.27259478801119" lon="9.603825130731813"><ele>333.3333333333333</ele><time>2026-04-30T06:07:49.023Z</time></trkpt><trkpt lat="40.272688781637385" lon="9.603783097614652"><ele>330.5</ele><time>2026-04-30T06:07:50.023Z</time></trkpt><trkpt lat="40.272782084746005" lon="9.603736427382415"><ele>327.66666666666663</ele><time>2026-04-30T06:07:51.023Z</time></trkpt><trkpt lat="40.27286322567735" lon="9.603717430783064"><ele>324.8333333333333</ele><time>2026-04-30T06:07:52.023Z</time></trkpt><trkpt lat="40.272921887863184" lon="9.603749233797583"><ele>322.0</ele><time>2026-04-30T06:07:53.024Z</time></trkpt><trkpt lat="40.2729673667802" lon="9.603816119080543"><ele>322.0</ele><time>2026-04-30T06:07:54.024Z</time></trkpt><trkpt lat="40.273005161177686" lon="9.603920053413171"><ele>322.0</ele><time>2026-04-30T06:07:55.024Z</time></trkpt><trkpt lat="40.2730494984398" lon="9.6040540114988"><ele>322.0</ele><time>2026-04-30T06:07:56.024Z</time></trkpt><trkpt lat="40.27310074846922" lon="9.60419567320779"><ele>322.0</ele><time>2026-04-30T06:07:57.024Z</time></trkpt><trkpt lat="40.27315169396139" lon="9.604312095521044"><ele>322.0</ele><time>2026-04-30T06:07:58.024Z</time></trkpt><trkpt lat="40.27322979008473" lon="9.604411373668873"><ele>322.40000000000003</ele><time>2026-04-30T06:07:59.024Z</time></trkpt><trkpt lat="40.27331355629521" lon="9.604480229748555"><ele>322.8</ele><time>2026-04-30T06:08:00.024Z</time></trkpt><trkpt lat="40.273399303407714" lon="9.604501626904682"><ele>323.2</ele><time>2026-04-30T06:08:01.024Z</time></trkpt><trkpt lat="40.273493378535676" lon="9.604504719818202"><ele>323.6</ele><time>2026-04-30T06:08:02.024Z</time></trkpt><trkpt lat="40.273601660377196" lon="9.604483617324952"><ele>324.0</ele><time>2026-04-30T06:08:03.024Z</time></trkpt><trkpt lat="40.27372754698149" lon="9.604469189878966"><ele>324.0</ele><time>2026-04-30T06:08:04.024Z</time></trkpt><trkpt lat="40.273862034227285" lon="9.604465490979878"><ele>324.0</ele><time>2026-04-30T06:08:05.024Z</time></trkpt><trkpt lat="40.27397958697674" lon="9.60446417767879"><ele>324.0</ele><time>2026-04-30T06:08:06.024Z</time></trkpt><trkpt lat="40.27409767676181" lon="9.604486884020151"><ele>324.0</ele><time>2026-04-30T06:08:07.024Z</time></trkpt><trkpt lat="40.274198229378186" lon="9.604537154262749"><ele>319.25</ele><time>2026-04-30T06:08:08.024Z</time></trkpt><trkpt lat="40.274314880181436" lon="9.604618740088116"><ele>314.5</ele><time>2026-04-30T06:08:09.024Z</time></trkpt><trkpt lat="40.27442834452929" lon="9.604710842788064"><ele>309.75</ele><time>2026-04-30T06:08:10.024Z</time></trkpt><trkpt lat="40.274550273661575" lon="9.604818542328104"><ele>305.0</ele><time>2026-04-30T06:08:11.024Z</time></trkpt><trkpt lat="40.274686584921945" lon="9.604930826466788"><ele>306.0</ele><time>2026-04-30T06:08:12.024Z</time></trkpt><trkpt lat="40.27483976543576" lon="9.605032600254924"><ele>307.0</ele><time>2026-04-30T06:08:13.024Z</time></trkpt><trkpt lat="40.27500305120393" lon="9.605128359078977"><ele>308.0</ele><time>2026-04-30T06:08:14.024Z</time></trkpt><trkpt lat="40.275164226284275" lon="9.605215880738237"><ele>308.0</ele><time>2026-04-30T06:08:15.024Z</time></trkpt><trkpt lat="40.27531887220937" lon="9.605304396957903"><ele>308.0</ele><time>2026-04-30T06:08:16.024Z</time></trkpt><trkpt lat="40.2754684971224" lon="9.605395520267813"><ele>308.0</ele><time>2026-04-30T06:08:17.024Z</time></trkpt><trkpt lat="40.2755962306447" lon="9.605484402976927"><ele>307.0</ele><time>2026-04-30T06:08:18.024Z</time></trkpt><trkpt lat="40.27570295502834" lon="9.605584065765834"><ele>306.0</ele><time>2026-04-30T06:08:19.024Z</time></trkpt><trkpt lat="40.27578587510037" lon="9.605663627434554"><ele>305.0</ele><time>2026-04-30T06:08:20.024Z</time></trkpt><trkpt lat="40.275860430062124" lon="9.605745045908753"><ele>304.0</ele><time>2026-04-30T06:08:21.024Z</time></trkpt><trkpt lat="40.27589956585628" lon="9.605819084134241"><ele>303.0</ele><time>2026-04-30T06:08:22.024Z</time></trkpt><trkpt lat="40.27590236254095" lon="9.605911135133107"><ele>303.0</ele><time>2026-04-30T06:08:23.024Z</time></trkpt><trkpt lat="40.27583817013787" lon="9.60598527477131"><ele>303.0</ele><time>2026-04-30T06:08:25.024Z</time></trkpt><trkpt lat="40.27576892636946" lon="9.605954653853237"><ele>303.0</ele><time>2026-04-30T06:08:26.025Z</time></trkpt><trkpt lat="40.275627791012184" lon="9.605909146953575"><ele>303.0</ele><time>2026-04-30T06:08:28.025Z</time></trkpt><trkpt lat="40.275511394242315" lon="9.605843869854715"><ele>303.0</ele><time>2026-04-30T06:08:29.025Z</time></trkpt><trkpt lat="40.27538554850028" lon="9.60583458271327"><ele>300.75</ele><time>2026-04-30T06:08:30.025Z</time></trkpt><trkpt lat="40.27525547043461" lon="9.605862164701291"><ele>298.5</ele><time>2026-04-30T06:08:31.025Z</time></trkpt><trkpt lat="40.27512450511174" lon="9.605905382590059"><ele>296.25</ele><time>2026-04-30T06:08:32.025Z</time></trkpt><trkpt lat="40.27499721723032" lon="9.605951970193175"><ele>294.0</ele><time>2026-04-30T06:08:33.025Z</time></trkpt><trkpt lat="40.27488276722627" lon="9.60601143810445"><ele>294.0</ele><time>2026-04-30T06:08:34.025Z</time></trkpt><trkpt lat="40.27478416945454" lon="9.60607062449395"><ele>294.0</ele><time>2026-04-30T06:08:35.025Z</time></trkpt><trkpt lat="40.27465249166416" lon="9.60608521606118"><ele>294.0</ele><time>2026-04-30T06:08:36.025Z</time></trkpt><trkpt lat="40.274518836619976" lon="9.606094086739091"><ele>294.0</ele><time>2026-04-30T06:08:37.025Z</time></trkpt><trkpt lat="40.274398545479904" lon="9.606114295405414"><ele>294.2</ele><time>2026-04-30T06:08:38.025Z</time></trkpt><trkpt lat="40.274287018908815" lon="9.606133600972312"><ele>294.4</ele><time>2026-04-30T06:08:39.025Z</time></trkpt><trkpt lat="40.27419456728251" lon="9.606198611592376"><ele>294.6</ele><time>2026-04-30T06:08:40.025Z</time></trkpt><trkpt lat="40.274138623021074" lon="9.606316684827188"><ele>294.8</ele><time>2026-04-30T06:08:41.025Z</time></trkpt><trkpt lat="40.274075325023745" lon="9.606435869960041"><ele>295.0</ele><time>2026-04-30T06:08:42.025Z</time></trkpt><trkpt lat="40.27401113814266" lon="9.606522226275839"><ele>292.75</ele><time>2026-04-30T06:08:43.025Z</time></trkpt><trkpt lat="40.27394035785882" lon="9.606622119424072"><ele>290.5</ele><time>2026-04-30T06:08:44.025Z</time></trkpt><trkpt lat="40.273853918092875" lon="9.606730996644513"><ele>288.25</ele><time>2026-04-30T06:08:45.025Z</time></trkpt><trkpt lat="40.273753992494875" lon="9.60685517627786"><ele>286.0</ele><time>2026-04-30T06:08:46.025Z</time></trkpt><trkpt lat="40.273652012056125" lon="9.606978078551787"><ele>283.0</ele><time>2026-04-30T06:08:47.025Z</time></trkpt><trkpt lat="40.27354827095566" lon="9.607099854735209"><ele>280.0</ele><time>2026-04-30T06:08:48.025Z</time></trkpt><trkpt lat="40.27345004401729" lon="9.607209581317377"><ele>277.0</ele><time>2026-04-30T06:08:49.025Z</time></trkpt><trkpt lat="40.27334222702691" lon="9.607302778085863"><ele>274.0</ele><time>2026-04-30T06:08:50.025Z</time></trkpt><trkpt lat="40.2732143765745" lon="9.607362516319045"><ele>273.75</ele><time>2026-04-30T06:08:51.025Z</time></trkpt><trkpt lat="40.273088222085086" lon="9.607479791063184"><ele>273.5</ele><time>2026-04-30T06:08:52.025Z</time></trkpt><trkpt lat="40.27298300209218" lon="9.607621805671153"><ele>273.25</ele><time>2026-04-30T06:08:53.025Z</time></trkpt><trkpt lat="40.27287939428287" lon="9.607748043128872"><ele>273.0</ele><time>2026-04-30T06:08:54.025Z</time></trkpt><trkpt lat="40.27279099933366" lon="9.607815559187873"><ele>270.4</ele><time>2026-04-30T06:08:55.025Z</time></trkpt><trkpt lat="40.27271596201082" lon="9.607830016831223"><ele>267.8</ele><time>2026-04-30T06:08:56.025Z</time></trkpt><trkpt lat="40.272627691688676" lon="9.607828671976936"><ele>265.2</ele><time>2026-04-30T06:08:57.025Z</time></trkpt><trkpt lat="40.2725039567037" lon="9.607832590627838"><ele>262.6</ele><time>2026-04-30T06:08:58.025Z</time></trkpt><trkpt lat="40.27237083960093" lon="9.607844092850529"><ele>260.0</ele><time>2026-04-30T06:08:59.025Z</time></trkpt><trkpt lat="40.272240289384335" lon="9.607832968070895"><ele>259.4</ele><time>2026-04-30T06:09:00.026Z</time></trkpt><trkpt lat="40.27212453041799" lon="9.607836134861481"><ele>258.8</ele><time>2026-04-30T06:09:01.026Z</time></trkpt><trkpt lat="40.27202250398606" lon="9.607845345689798"><ele>258.2</ele><time>2026-04-30T06:09:02.026Z</time></trkpt><trkpt lat="40.271935660496226" lon="9.607872838835123"><ele>257.6</ele><time>2026-04-30T06:09:03.026Z</time></trkpt><trkpt lat="40.27184334750276" lon="9.607911351507324"><ele>257.0</ele><time>2026-04-30T06:09:04.026Z</time></trkpt><trkpt lat="40.27179982439968" lon="9.608000790717776"><ele>257.0</ele><time>2026-04-30T06:09:05.026Z</time></trkpt><trkpt lat="40.271794161277874" lon="9.60808978190974"><ele>257.0</ele><time>2026-04-30T06:09:06.026Z</time></trkpt><trkpt lat="40.27181862606956" lon="9.608168594970746"><ele>257.0</ele><time>2026-04-30T06:09:07.026Z</time></trkpt><trkpt lat="40.27189927222078" lon="9.608203941955797"><ele>257.0</ele><time>2026-04-30T06:09:08.026Z</time></trkpt><trkpt lat="40.27199041545509" lon="9.608249237853821"><ele>257.0</ele><time>2026-04-30T06:09:09.026Z</time></trkpt><trkpt lat="40.272101036521974" lon="9.608271785256886"><ele>257.0</ele><time>2026-04-30T06:09:10.026Z</time></trkpt><trkpt lat="40.272207778795185" lon="9.608295617532162"><ele>257.6</ele><time>2026-04-30T06:09:11.026Z</time></trkpt><trkpt lat="40.272297768853896" lon="9.608325493298134"><ele>258.2</ele><time>2026-04-30T06:09:12.026Z</time></trkpt><trkpt lat="40.27236467112055" lon="9.608378970722056"><ele>258.8</ele><time>2026-04-30T06:09:13.026Z</time></trkpt><trkpt lat="40.27243279383888" lon="9.608473984530363"><ele>259.4</ele><time>2026-04-30T06:09:14.026Z</time></trkpt><trkpt lat="40.27252626973164" lon="9.608586357806603"><ele>260.0</ele><time>2026-04-30T06:09:15.026Z</time></trkpt><trkpt lat="40.272638335073324" lon="9.608678389707514"><ele>257.25</ele><time>2026-04-30T06:09:16.026Z</time></trkpt><trkpt lat="40.27275193363212" lon="9.608757365432368"><ele>254.5</ele><time>2026-04-30T06:09:17.026Z</time></trkpt><trkpt lat="40.27287116756622" lon="9.608842957793692"><ele>251.75</ele><time>2026-04-30T06:09:18.026Z</time></trkpt><trkpt lat="40.27299101139087" lon="9.60892878798663"><ele>249.0</ele><time>2026-04-30T06:09:19.026Z</time></trkpt><trkpt lat="40.27311374669032" lon="9.609012472940023"><ele>249.0</ele><time>2026-04-30T06:09:20.026Z</time></trkpt><trkpt lat="40.273249945693394" lon="9.609080425145764"><ele>249.0</ele><time>2026-04-30T06:09:21.026Z</time></trkpt><trkpt lat="40.27338516891954" lon="9.609120609517328"><ele>249.0</ele><time>2026-04-30T06:09:22.026Z</time></trkpt><trkpt lat="40.27352532101099" lon="9.609144651113773"><ele>249.0</ele><time>2026-04-30T06:09:23.026Z</time></trkpt><trkpt lat="40.27366903987021" lon="9.60915643768087"><ele>249.0</ele><time>2026-04-30T06:09:24.026Z</time></trkpt><trkpt lat="40.27382442417763" lon="9.609147612639756"><ele>249.0</ele><time>2026-04-30T06:09:25.026Z</time></trkpt><trkpt lat="40.27396932027413" lon="9.609126015674596"><ele>249.0</ele><time>2026-04-30T06:09:26.026Z</time></trkpt><trkpt lat="40.27409563135403" lon="9.609108332014701"><ele>249.0</ele><time>2026-04-30T06:09:27.026Z</time></trkpt><trkpt lat="40.274219530491756" lon="9.609116682154887"><ele>247.75</ele><time>2026-04-30T06:09:28.026Z</time></trkpt><trkpt lat="40.27434955552011" lon="9.609132474308671"><ele>246.5</ele><time>2026-04-30T06:09:29.026Z</time></trkpt><trkpt lat="40.27447279679931" lon="9.609208379499192"><ele>245.25</ele><time>2026-04-30T06:09:30.026Z</time></trkpt><trkpt lat="40.274603914084196" lon="9.60926096193206"><ele>244.0</ele><time>2026-04-30T06:09:31.026Z</time></trkpt><trkpt lat="40.274732338539714" lon="9.609344122830791"><ele>243.0</ele><time>2026-04-30T06:09:32.026Z</time></trkpt><trkpt lat="40.27486041730647" lon="9.609429715237475"><ele>242.0</ele><time>2026-04-30T06:09:33.027Z</time></trkpt><trkpt lat="40.274985817560314" lon="9.609524878876655"><ele>241.0</ele><time>2026-04-30T06:09:34.027Z</time></trkpt><trkpt lat="40.275115691814825" lon="9.609625661233151"><ele>240.0</ele><time>2026-04-30T06:09:35.027Z</time></trkpt><trkpt lat="40.275235707536815" lon="9.609730395823938"><ele>237.5</ele><time>2026-04-30T06:09:36.027Z</time></trkpt><trkpt lat="40.27535380141978" lon="9.609817676018704"><ele>235.0</ele><time>2026-04-30T06:09:37.027Z</time></trkpt><trkpt lat="40.27548360639883" lon="9.609892453925784"><ele>232.5</ele><time>2026-04-30T06:09:38.027Z</time></trkpt><trkpt lat="40.27561360666957" lon="9.609947242818226"><ele>230.0</ele><time>2026-04-30T06:09:39.027Z</time></trkpt><trkpt lat="40.27574459016661" lon="9.609980496776336"><ele>230.0</ele><time>2026-04-30T06:09:40.027Z</time></trkpt><trkpt lat="40.27585466395689" lon="9.609999031259765"><ele>230.0</ele><time>2026-04-30T06:09:41.027Z</time></trkpt><trkpt lat="40.27593146837627" lon="9.61001413707197"><ele>230.0</ele><time>2026-04-30T06:09:42.027Z</time></trkpt><trkpt lat="40.27600587459928" lon="9.610097399530307"><ele>230.0</ele><time>2026-04-30T06:09:44.027Z</time></trkpt><trkpt lat="40.27596356544962" lon="9.61024710313123"><ele>230.0</ele><time>2026-04-30T06:09:46.027Z</time></trkpt><trkpt lat="40.2758952755499" lon="9.61026261667208"><ele>230.0</ele><time>2026-04-30T06:09:47.027Z</time></trkpt><trkpt lat="40.27581779053292" lon="9.610268713958444"><ele>230.0</ele><time>2026-04-30T06:09:48.027Z</time></trkpt><trkpt lat="40.27572054939952" lon="9.610267196649305"><ele>230.0</ele><time>2026-04-30T06:09:49.027Z</time></trkpt><trkpt lat="40.275625312770345" lon="9.610274269143359"><ele>230.0</ele><time>2026-04-30T06:09:50.027Z</time></trkpt><trkpt lat="40.27555076246199" lon="9.610301938932775"><ele>230.0</ele><time>2026-04-30T06:09:51.027Z</time></trkpt><trkpt lat="40.275446735543454" lon="9.610326962718855"><ele>229.0</ele><time>2026-04-30T06:09:52.027Z</time></trkpt><trkpt lat="40.275213330083574" lon="9.609893412400606"><ele>228.0</ele><time>2026-04-30T06:09:53.027Z</time></trkpt><trkpt lat="40.275279415598696" lon="9.61051577292738"><ele>225.75</ele><time>2026-04-30T06:09:54.027Z</time></trkpt><trkpt lat="40.27514087625081" lon="9.610580046289792"><ele>223.5</ele><time>2026-04-30T06:09:55.027Z</time></trkpt><trkpt lat="40.27500872391938" lon="9.610648999708411"><ele>221.25</ele><time>2026-04-30T06:09:56.027Z</time></trkpt><trkpt lat="40.27487992455698" lon="9.61070436268843"><ele>219.0</ele><time>2026-04-30T06:09:57.027Z</time></trkpt><trkpt lat="40.27475208461549" lon="9.610745023750766"><ele>219.0</ele><time>2026-04-30T06:09:58.027Z</time></trkpt><trkpt lat="40.274633579971315" lon="9.610778027786798"><ele>219.0</ele><time>2026-04-30T06:09:59.027Z</time></trkpt><trkpt lat="40.27452864138299" lon="9.610828264348013"><ele>219.0</ele><time>2026-04-30T06:10:00.027Z</time></trkpt><trkpt lat="40.27442301075725" lon="9.61090586650916"><ele>219.0</ele><time>2026-04-30T06:10:01.027Z</time></trkpt><trkpt lat="40.27432406258906" lon="9.611019032991292"><ele>219.0</ele><time>2026-04-30T06:10:02.027Z</time></trkpt><trkpt lat="40.27422829509113" lon="9.611145986106912"><ele>219.0</ele><time>2026-04-30T06:10:03.027Z</time></trkpt><trkpt lat="40.27413726788184" lon="9.611272972058499"><ele>219.0</ele><time>2026-04-30T06:10:04.027Z</time></trkpt><trkpt lat="40.27403937603832" lon="9.61140170337846"><ele>219.0</ele><time>2026-04-30T06:10:05.027Z</time></trkpt><trkpt lat="40.273928449162376" lon="9.611526230548238"><ele>216.0</ele><time>2026-04-30T06:10:06.028Z</time></trkpt><trkpt lat="40.27380828744814" lon="9.61165066965648"><ele>213.0</ele><time>2026-04-30T06:10:07.028Z</time></trkpt><trkpt lat="40.27368102372974" lon="9.611768766896157"><ele>210.0</ele><time>2026-04-30T06:10:08.028Z</time></trkpt><trkpt lat="40.273555280816744" lon="9.611872494091468"><ele>210.0</ele><time>2026-04-30T06:10:09.028Z</time></trkpt><trkpt lat="40.273421365313546" lon="9.611961440035493"><ele>210.0</ele><time>2026-04-30T06:10:10.028Z</time></trkpt><trkpt lat="40.27327547068453" lon="9.612039541847865"><ele>210.0</ele><time>2026-04-30T06:10:11.028Z</time></trkpt><trkpt lat="40.273122584739355" lon="9.612098712010019"><ele>205.66666666666669</ele><time>2026-04-30T06:10:12.028Z</time></trkpt><trkpt lat="40.27296984456776" lon="9.612152808697175"><ele>201.33333333333334</ele><time>2026-04-30T06:10:13.028Z</time></trkpt><trkpt lat="40.27282460610552" lon="9.61220836390158"><ele>197.0</ele><time>2026-04-30T06:10:14.028Z</time></trkpt><trkpt lat="40.27268566142425" lon="9.612267819455576"><ele>197.0</ele><time>2026-04-30T06:10:15.028Z</time></trkpt><trkpt lat="40.27254998681814" lon="9.612321024410397"><ele>197.0</ele><time>2026-04-30T06:10:16.028Z</time></trkpt><trkpt lat="40.27242121638454" lon="9.612353437667172"><ele>197.0</ele><time>2026-04-30T06:10:17.028Z</time></trkpt><trkpt lat="40.27228167546539" lon="9.612375101977163"><ele>197.0</ele><time>2026-04-30T06:10:18.028Z</time></trkpt><trkpt lat="40.27215153287093" lon="9.612369928816932"><ele>197.6</ele><time>2026-04-30T06:10:19.028Z</time></trkpt><trkpt lat="40.27206474228244" lon="9.612363009098859"><ele>198.2</ele><time>2026-04-30T06:10:20.028Z</time></trkpt><trkpt lat="40.27197267511508" lon="9.612451083598094"><ele>198.8</ele><time>2026-04-30T06:10:22.028Z</time></trkpt><trkpt lat="40.27195118162882" lon="9.612571096505244"><ele>199.4</ele><time>2026-04-30T06:10:23.028Z</time></trkpt><trkpt lat="40.271963233565245" lon="9.612684709084762"><ele>200.0</ele><time>2026-04-30T06:10:24.028Z</time></trkpt><trkpt lat="40.27200549838627" lon="9.612772946426263"><ele>200.0</ele><time>2026-04-30T06:10:25.028Z</time></trkpt><trkpt lat="40.272074310128396" lon="9.612839313344331"><ele>200.0</ele><time>2026-04-30T06:10:26.028Z</time></trkpt><trkpt lat="40.272152119810606" lon="9.6128223673902"><ele>200.0</ele><time>2026-04-30T06:10:27.028Z</time></trkpt><trkpt lat="40.27226787835228" lon="9.612794880290041"><ele>200.0</ele><time>2026-04-30T06:10:28.028Z</time></trkpt><trkpt lat="40.27239865238667" lon="9.61279873721343"><ele>200.0</ele><time>2026-04-30T06:10:29.028Z</time></trkpt><trkpt lat="40.27252269388549" lon="9.61283975378553"><ele>196.25</ele><time>2026-04-30T06:10:30.028Z</time></trkpt><trkpt lat="40.27264141393144" lon="9.612913088790458"><ele>192.5</ele><time>2026-04-30T06:10:31.028Z</time></trkpt><trkpt lat="40.272769034349245" lon="9.613001365058622"><ele>188.75</ele><time>2026-04-30T06:10:32.028Z</time></trkpt><trkpt lat="40.27290716059159" lon="9.613097295240447"><ele>185.0</ele><time>2026-04-30T06:10:33.028Z</time></trkpt><trkpt lat="40.27304357408534" lon="9.613201652276874"><ele>185.0</ele><time>2026-04-30T06:10:34.028Z</time></trkpt><trkpt lat="40.27317526566675" lon="9.613312998533786"><ele>185.0</ele><time>2026-04-30T06:10:35.028Z</time></trkpt><trkpt lat="40.273299492025444" lon="9.613420505720091"><ele>185.0</ele><time>2026-04-30T06:10:36.028Z</time></trkpt><trkpt lat="40.27342514036924" lon="9.613524502996487"><ele>185.0</ele><time>2026-04-30T06:10:37.028Z</time></trkpt><trkpt lat="40.27356025153738" lon="9.613617491447028"><ele>185.0</ele><time>2026-04-30T06:10:38.028Z</time></trkpt><trkpt lat="40.27370049185273" lon="9.61369329654195"><ele>185.0</ele><time>2026-04-30T06:10:39.028Z</time></trkpt><trkpt lat="40.273849171403455" lon="9.613743422724763"><ele>181.33333333333331</ele><time>2026-04-30T06:10:40.029Z</time></trkpt><trkpt lat="40.27400027677788" lon="9.613780287025797"><ele>177.66666666666666</ele><time>2026-04-30T06:10:41.029Z</time></trkpt><trkpt lat="40.27415429253455" lon="9.613808180827291"><ele>174.0</ele><time>2026-04-30T06:10:42.029Z</time></trkpt><trkpt lat="40.274320740591136" lon="9.613824089444021"><ele>174.0</ele><time>2026-04-30T06:10:43.029Z</time></trkpt><trkpt lat="40.274473319479675" lon="9.61385830634017"><ele>174.0</ele><time>2026-04-30T06:10:44.029Z</time></trkpt><trkpt lat="40.27461972080999" lon="9.613902686414136"><ele>174.0</ele><time>2026-04-30T06:10:45.029Z</time></trkpt><trkpt lat="40.274766674177" lon="9.613953766514053"><ele>173.0</ele><time>2026-04-30T06:10:46.029Z</time></trkpt><trkpt lat="40.27490233155022" lon="9.614018352799919"><ele>172.0</ele><time>2026-04-30T06:10:47.029Z</time></trkpt><trkpt lat="40.2750379145746" lon="9.61409227566412"><ele>171.0</ele><time>2026-04-30T06:10:48.029Z</time></trkpt><trkpt lat="40.275161226035" lon="9.614183521453462"><ele>170.0</ele><time>2026-04-30T06:10:49.029Z</time></trkpt><trkpt lat="40.2752879425672" lon="9.614266221234947"><ele>170.0</ele><time>2026-04-30T06:10:50.029Z</time></trkpt><trkpt lat="40.27540571544663" lon="9.614338699352636"><ele>170.0</ele><time>2026-04-30T06:10:51.029Z</time></trkpt><trkpt lat="40.27553659847104" lon="9.614388584836068"><ele>170.0</ele><time>2026-04-30T06:10:52.029Z</time></trkpt><trkpt lat="40.275673340748114" lon="9.61441793746879"><ele>170.0</ele><time>2026-04-30T06:10:53.029Z</time></trkpt><trkpt lat="40.27580844152922" lon="9.614433775770372"><ele>169.75</ele><time>2026-04-30T06:10:54.029Z</time></trkpt><trkpt lat="40.27594365305137" lon="9.61442662242308"><ele>169.5</ele><time>2026-04-30T06:10:55.029Z</time></trkpt><trkpt lat="40.276082769584285" lon="9.614399508298128"><ele>169.25</ele><time>2026-04-30T06:10:56.029Z</time></trkpt><trkpt lat="40.27621654813698" lon="9.61436607429704"><ele>169.0</ele><time>2026-04-30T06:10:57.029Z</time></trkpt><trkpt lat="40.276351239105786" lon="9.614361304618148"><ele>168.25</ele><time>2026-04-30T06:10:58.029Z</time></trkpt><trkpt lat="40.27649064264778" lon="9.614377810564424"><ele>167.5</ele><time>2026-04-30T06:10:59.029Z</time></trkpt><trkpt lat="40.27662835932845" lon="9.614378446010583"><ele>166.75</ele><time>2026-04-30T06:11:00.029Z</time></trkpt><trkpt lat="40.27676256369796" lon="9.614444358573843"><ele>166.0</ele><time>2026-04-30T06:11:01.029Z</time></trkpt><trkpt lat="40.27689268863344" lon="9.614508068500019"><ele>163.75</ele><time>2026-04-30T06:11:02.029Z</time></trkpt><trkpt lat="40.27703079727802" lon="9.614558161142568"><ele>161.5</ele><time>2026-04-30T06:11:03.029Z</time></trkpt><trkpt lat="40.27716690546009" lon="9.614644876371592"><ele>159.25</ele><time>2026-04-30T06:11:04.029Z</time></trkpt><trkpt lat="40.27728730220835" lon="9.614719485673199"><ele>157.0</ele><time>2026-04-30T06:11:05.029Z</time></trkpt><trkpt lat="40.27739994649103" lon="9.61480665685373"><ele>157.0</ele><time>2026-04-30T06:11:06.029Z</time></trkpt><trkpt lat="40.27752189914097" lon="9.614910629496775"><ele>157.0</ele><time>2026-04-30T06:11:07.029Z</time></trkpt><trkpt lat="40.27762000397497" lon="9.615041683188963"><ele>157.0</ele><time>2026-04-30T06:11:08.029Z</time></trkpt><trkpt lat="40.2777268372185" lon="9.615182988879992"><ele>157.0</ele><time>2026-04-30T06:11:09.029Z</time></trkpt><trkpt lat="40.27783750237536" lon="9.615323908393934"><ele>154.66666666666669</ele><time>2026-04-30T06:11:10.029Z</time></trkpt><trkpt lat="40.27795224865948" lon="9.615455565844549"><ele>152.33333333333334</ele><time>2026-04-30T06:11:11.029Z</time></trkpt><trkpt lat="40.27806159769823" lon="9.615592686474258"><ele>150.0</ele><time>2026-04-30T06:11:12.029Z</time></trkpt><trkpt lat="40.278173634785745" lon="9.615730141017302"><ele>150.0</ele><time>2026-04-30T06:11:13.03Z</time></trkpt><trkpt lat="40.278292220532855" lon="9.615867934950456"><ele>150.0</ele><time>2026-04-30T06:11:14.03Z</time></trkpt><trkpt lat="40.27840745972564" lon="9.616004304216622"><ele>150.0</ele><time>2026-04-30T06:11:15.03Z</time></trkpt><trkpt lat="40.27852367634299" lon="9.616134725666607"><ele>146.33333333333334</ele><time>2026-04-30T06:11:16.03Z</time></trkpt><trkpt lat="40.278632672605504" lon="9.616278850557995"><ele>142.66666666666669</ele><time>2026-04-30T06:11:17.03Z</time></trkpt><trkpt lat="40.278736423867954" lon="9.616427800094016"><ele>139.0</ele><time>2026-04-30T06:11:18.03Z</time></trkpt><trkpt lat="40.278833070996754" lon="9.616585710662864"><ele>139.0</ele><time>2026-04-30T06:11:19.03Z</time></trkpt><trkpt lat="40.27892574955986" lon="9.616759458895114"><ele>139.0</ele><time>2026-04-30T06:11:20.03Z</time></trkpt><trkpt lat="40.27899294598121" lon="9.616945833311355"><ele>139.0</ele><time>2026-04-30T06:11:21.03Z</time></trkpt><trkpt lat="40.279062992596586" lon="9.617144111990156"><ele>137.66666666666669</ele><time>2026-04-30T06:11:22.03Z</time></trkpt><trkpt lat="40.27912423141803" lon="9.617335364566337"><ele>136.33333333333334</ele><time>2026-04-30T06:11:23.03Z</time></trkpt><trkpt lat="40.27917922163796" lon="9.617515813739619"><ele>135.0</ele><time>2026-04-30T06:11:24.03Z</time></trkpt><trkpt lat="40.27923733339569" lon="9.617700457896962"><ele>133.25</ele><time>2026-04-30T06:11:25.03Z</time></trkpt><trkpt lat="40.27929766906552" lon="9.617869181912184"><ele>131.5</ele><time>2026-04-30T06:11:26.03Z</time></trkpt><trkpt lat="40.27934850317851" lon="9.618034297129071"><ele>129.75</ele><time>2026-04-30T06:11:27.03Z</time></trkpt><trkpt lat="40.279402844728736" lon="9.618195334722085"><ele>128.0</ele><time>2026-04-30T06:11:28.03Z</time></trkpt><trkpt lat="40.27945579725623" lon="9.618349062637972"><ele>128.0</ele><time>2026-04-30T06:11:29.03Z</time></trkpt><trkpt lat="40.279512358079025" lon="9.618501576870043"><ele>128.0</ele><time>2026-04-30T06:11:30.03Z</time></trkpt><trkpt lat="40.27955212941998" lon="9.618642134094825"><ele>128.0</ele><time>2026-04-30T06:11:31.03Z</time></trkpt><trkpt lat="40.27959783492392" lon="9.61877372660063"><ele>128.0</ele><time>2026-04-30T06:11:32.03Z</time></trkpt><trkpt lat="40.27961761463128" lon="9.618888701623034"><ele>128.0</ele><time>2026-04-30T06:11:33.03Z</time></trkpt><trkpt lat="40.2795969844976" lon="9.619016274614816"><ele>128.33333333333331</ele><time>2026-04-30T06:11:34.03Z</time></trkpt><trkpt lat="40.27963408457999" lon="9.619087716969103"><ele>128.66666666666666</ele><time>2026-04-30T06:11:35.03Z</time></trkpt><trkpt lat="40.27969834910217" lon="9.619206925062482"><ele>129.0</ele><time>2026-04-30T06:11:37.03Z</time></trkpt><trkpt lat="40.27974487504912" lon="9.619287365178426"><ele>129.33333333333334</ele><time>2026-04-30T06:11:39.03Z</time></trkpt><trkpt lat="40.27979127139602" lon="9.619376811639176"><ele>129.66666666666669</ele><time>2026-04-30T06:11:41.03Z</time></trkpt><trkpt lat="40.279834238122255" lon="9.61946920288172"><ele>130.0</ele><time>2026-04-30T06:11:52.031Z</time></trkpt><trkpt lat="40.279869314171336" lon="9.619573907756402"><ele>128.6</ele><time>2026-04-30T06:11:54.031Z</time></trkpt><trkpt lat="40.27992048071922" lon="9.619726644280753"><ele>127.2</ele><time>2026-04-30T06:11:56.031Z</time></trkpt><trkpt lat="40.27995316154786" lon="9.619824199302537"><ele>125.80000000000001</ele><time>2026-04-30T06:11:57.031Z</time></trkpt><trkpt lat="40.28000171314625" lon="9.619923350902896"><ele>124.4</ele><time>2026-04-30T06:11:58.031Z</time></trkpt><trkpt lat="40.280043553057205" lon="9.62004183828141"><ele>123.0</ele><time>2026-04-30T06:11:59.031Z</time></trkpt><trkpt lat="40.28008134342329" lon="9.620163594739827"><ele>123.0</ele><time>2026-04-30T06:12:00.031Z</time></trkpt><trkpt lat="40.28012351815912" lon="9.620281766823837"><ele>123.00000000000001</ele><time>2026-04-30T06:12:01.031Z</time></trkpt><trkpt lat="40.28017041160616" lon="9.62039161827346"><ele>123.00000000000001</ele><time>2026-04-30T06:12:02.031Z</time></trkpt><trkpt lat="40.28021373699404" lon="9.620496533125127"><ele>123.0</ele><time>2026-04-30T06:12:03.031Z</time></trkpt><trkpt lat="40.280254720529996" lon="9.62059433043246"><ele>123.0</ele><time>2026-04-30T06:12:04.031Z</time></trkpt><trkpt lat="40.28028775791484" lon="9.620695812470338"><ele>122.75</ele><time>2026-04-30T06:12:05.031Z</time></trkpt><trkpt lat="40.280332188943305" lon="9.620800506567148"><ele>122.5</ele><time>2026-04-30T06:12:06.031Z</time></trkpt><trkpt lat="40.28046247590426" lon="9.62084080639413"><ele>122.25</ele><time>2026-04-30T06:12:07.031Z</time></trkpt><trkpt lat="40.28055767905442" lon="9.620912172020796"><ele>122.0</ele><time>2026-04-30T06:12:08.031Z</time></trkpt><trkpt lat="40.28066587932591" lon="9.620988793035155"><ele>122.0</ele><time>2026-04-30T06:12:09.031Z</time></trkpt><trkpt lat="40.28077843375737" lon="9.621073318601306"><ele>122.0</ele><time>2026-04-30T06:12:10.031Z</time></trkpt><trkpt lat="40.280892105049446" lon="9.621157486943131"><ele>122.0</ele><time>2026-04-30T06:12:11.031Z</time></trkpt><trkpt lat="40.28101007049843" lon="9.62124843011434"><ele>122.0</ele><time>2026-04-30T06:12:12.031Z</time></trkpt><trkpt lat="40.281142689602575" lon="9.621345791780168"><ele>123.0</ele><time>2026-04-30T06:12:13.031Z</time></trkpt><trkpt lat="40.281276001886894" lon="9.621449747966835"><ele>124.0</ele><time>2026-04-30T06:12:14.031Z</time></trkpt><trkpt lat="40.28141478333024" lon="9.621557541981618"><ele>125.0</ele><time>2026-04-30T06:12:15.031Z</time></trkpt><trkpt lat="40.281557634447566" lon="9.62167033743262"><ele>125.0</ele><time>2026-04-30T06:12:16.031Z</time></trkpt><trkpt lat="40.28170020629616" lon="9.621786201964944"><ele>125.0</ele><time>2026-04-30T06:12:17.031Z</time></trkpt><trkpt lat="40.281841048421256" lon="9.621895797490629"><ele>125.0</ele><time>2026-04-30T06:12:18.031Z</time></trkpt><trkpt lat="40.281980046491" lon="9.622032166214357"><ele>124.66666666666666</ele><time>2026-04-30T06:12:19.031Z</time></trkpt><trkpt lat="40.28213867381796" lon="9.622134043845078"><ele>124.33333333333334</ele><time>2026-04-30T06:12:20.032Z</time></trkpt><trkpt lat="40.28228709393482" lon="9.6222551355737"><ele>124.0</ele><time>2026-04-30T06:12:21.032Z</time></trkpt><trkpt lat="40.282435398329895" lon="9.622371181005803"><ele>124.0</ele><time>2026-04-30T06:12:22.032Z</time></trkpt><trkpt lat="40.28256086096103" lon="9.622484589305264"><ele>124.0</ele><time>2026-04-30T06:12:23.032Z</time></trkpt><trkpt lat="40.28266314409855" lon="9.622621389270474"><ele>124.0</ele><time>2026-04-30T06:12:24.032Z</time></trkpt><trkpt lat="40.28275320709051" lon="9.622763823637603"><ele>124.0</ele><time>2026-04-30T06:12:25.032Z</time></trkpt><trkpt lat="40.28283252405193" lon="9.622898732529476"><ele>122.0</ele><time>2026-04-30T06:12:26.032Z</time></trkpt><trkpt lat="40.282905787423935" lon="9.623054785607973"><ele>120.0</ele><time>2026-04-30T06:12:27.032Z</time></trkpt><trkpt lat="40.282999684833776" lon="9.623217265339829"><ele>118.0</ele><time>2026-04-30T06:12:28.032Z</time></trkpt><trkpt lat="40.28306800453441" lon="9.623400030236072"><ele>118.33333333333334</ele><time>2026-04-30T06:12:29.032Z</time></trkpt><trkpt lat="40.28315349550371" lon="9.623592411432599"><ele>118.66666666666666</ele><time>2026-04-30T06:12:30.032Z</time></trkpt><trkpt lat="40.28323159750197" lon="9.623798484637227"><ele>119.0</ele><time>2026-04-30T06:12:31.032Z</time></trkpt><trkpt lat="40.28330191632769" lon="9.62401917701038"><ele>119.0</ele><time>2026-04-30T06:12:32.032Z</time></trkpt><trkpt lat="40.28336426343092" lon="9.624237292817579"><ele>119.0</ele><time>2026-04-30T06:12:33.032Z</time></trkpt><trkpt lat="40.28342766167294" lon="9.624453178542547"><ele>119.0</ele><time>2026-04-30T06:12:34.032Z</time></trkpt><trkpt lat="40.28348779665515" lon="9.624674442266038"><ele>117.0</ele><time>2026-04-30T06:12:35.032Z</time></trkpt><trkpt lat="40.28354618428626" lon="9.624892882662234"><ele>115.0</ele><time>2026-04-30T06:12:36.032Z</time></trkpt><trkpt lat="40.28359806936019" lon="9.625090792009855"><ele>113.0</ele><time>2026-04-30T06:12:37.032Z</time></trkpt><trkpt lat="40.28364288962276" lon="9.625273798451946"><ele>111.80000000000001</ele><time>2026-04-30T06:12:38.032Z</time></trkpt><trkpt lat="40.28367752431893" lon="9.62543580987518"><ele>110.60000000000001</ele><time>2026-04-30T06:12:39.032Z</time></trkpt><trkpt lat="40.28369591967762" lon="9.625571036259348"><ele>109.39999999999999</ele><time>2026-04-30T06:12:40.032Z</time></trkpt><trkpt lat="40.28367017261908" lon="9.625696997012422"><ele>108.19999999999999</ele><time>2026-04-30T06:12:41.032Z</time></trkpt><trkpt lat="40.28363081574039" lon="9.625826660643556"><ele>107.0</ele><time>2026-04-30T06:12:42.032Z</time></trkpt><trkpt lat="40.283583483087" lon="9.62597575319599"><ele>105.25</ele><time>2026-04-30T06:12:43.032Z</time></trkpt><trkpt lat="40.28352455353556" lon="9.626150283617692"><ele>103.5</ele><time>2026-04-30T06:12:44.032Z</time></trkpt><trkpt lat="40.283470018911295" lon="9.626321710781344"><ele>101.75</ele><time>2026-04-30T06:12:45.032Z</time></trkpt><trkpt lat="40.28343115028779" lon="9.626487229755558"><ele>100.0</ele><time>2026-04-30T06:12:46.032Z</time></trkpt><trkpt lat="40.28342000492006" lon="9.626649500926415"><ele>100.0</ele><time>2026-04-30T06:12:47.032Z</time></trkpt><trkpt lat="40.28340401906258" lon="9.626802568701917"><ele>100.0</ele><time>2026-04-30T06:12:48.032Z</time></trkpt><trkpt lat="40.28339976345783" lon="9.62694834305828"><ele>100.0</ele><time>2026-04-30T06:12:49.032Z</time></trkpt><trkpt lat="40.2833911068286" lon="9.6270818043967"><ele>100.0</ele><time>2026-04-30T06:12:50.032Z</time></trkpt><trkpt lat="40.28343925029008" lon="9.62718691756172"><ele>100.0</ele><time>2026-04-30T06:12:51.032Z</time></trkpt><trkpt lat="40.28347124309203" lon="9.62731215285174"><ele>98.5</ele><time>2026-04-30T06:12:52.032Z</time></trkpt><trkpt lat="40.28355045323726" lon="9.627429559082982"><ele>97.0</ele><time>2026-04-30T06:12:53.033Z</time></trkpt><trkpt lat="40.28362842194592" lon="9.627573842067674"><ele>95.5</ele><time>2026-04-30T06:12:54.033Z</time></trkpt><trkpt lat="40.283715508405436" lon="9.62772440178965"><ele>94.0</ele><time>2026-04-30T06:12:55.033Z</time></trkpt><trkpt lat="40.28381437930344" lon="9.627885088285478"><ele>92.0</ele><time>2026-04-30T06:12:56.033Z</time></trkpt><trkpt lat="40.283912994717475" lon="9.628057513286892"><ele>90.0</ele><time>2026-04-30T06:12:57.033Z</time></trkpt><trkpt lat="40.284007009583256" lon="9.628229443497567"><ele>88.0</ele><time>2026-04-30T06:12:58.033Z</time></trkpt><trkpt lat="40.284103658527016" lon="9.628397884108972"><ele>88.0</ele><time>2026-04-30T06:12:59.033Z</time></trkpt><trkpt lat="40.28419761087478" lon="9.628565641900188"><ele>88.0</ele><time>2026-04-30T06:13:00.033Z</time></trkpt><trkpt lat="40.2842937503476" lon="9.628728769299466"><ele>88.0</ele><time>2026-04-30T06:13:01.033Z</time></trkpt><trkpt lat="40.28437649250551" lon="9.628900811982428"><ele>83.66666666666666</ele><time>2026-04-30T06:13:02.033Z</time></trkpt><trkpt lat="40.28447784262066" lon="9.629066906197094"><ele>79.33333333333333</ele><time>2026-04-30T06:13:03.033Z</time></trkpt><trkpt lat="40.28459765016481" lon="9.629203477530535"><ele>75.0</ele><time>2026-04-30T06:13:04.033Z</time></trkpt><trkpt lat="40.28469301149165" lon="9.629351331639121"><ele>73.75</ele><time>2026-04-30T06:13:05.033Z</time></trkpt><trkpt lat="40.28477531607196" lon="9.629508382487602"><ele>72.5</ele><time>2026-04-30T06:13:06.033Z</time></trkpt><trkpt lat="40.28484841767073" lon="9.629672856706263"><ele>71.25</ele><time>2026-04-30T06:13:07.033Z</time></trkpt><trkpt lat="40.284914874909816" lon="9.629854127594909"><ele>70.0</ele><time>2026-04-30T06:13:08.033Z</time></trkpt><trkpt lat="40.284990375204934" lon="9.630037646306995"><ele>70.0</ele><time>2026-04-30T06:13:09.033Z</time></trkpt><trkpt lat="40.285046288043944" lon="9.63023309002041"><ele>70.0</ele><time>2026-04-30T06:13:10.033Z</time></trkpt><trkpt lat="40.28512109771273" lon="9.630414242178894"><ele>70.0</ele><time>2026-04-30T06:13:11.033Z</time></trkpt><trkpt lat="40.28516779719333" lon="9.630604141708174"><ele>68.0</ele><time>2026-04-30T06:13:12.033Z</time></trkpt><trkpt lat="40.28521176045329" lon="9.630791846693024"><ele>66.0</ele><time>2026-04-30T06:13:13.033Z</time></trkpt><trkpt lat="40.28524475190043" lon="9.630974735519839"><ele>64.0</ele><time>2026-04-30T06:13:14.033Z</time></trkpt><trkpt lat="40.28530613914301" lon="9.631134113370646"><ele>62.0</ele><time>2026-04-30T06:13:15.033Z</time></trkpt><trkpt lat="40.28539583131896" lon="9.631259931404715"><ele>61.5</ele><time>2026-04-30T06:13:16.033Z</time></trkpt><trkpt lat="40.28548559892086" lon="9.631397471968711"><ele>61.0</ele><time>2026-04-30T06:13:17.033Z</time></trkpt><trkpt lat="40.28558359593447" lon="9.631533094674415"><ele>60.5</ele><time>2026-04-30T06:13:18.033Z</time></trkpt><trkpt lat="40.28568837114063" lon="9.631663135036893"><ele>60.0</ele><time>2026-04-30T06:13:19.033Z</time></trkpt><trkpt lat="40.28579609449939" lon="9.63180115846435"><ele>60.0</ele><time>2026-04-30T06:13:20.033Z</time></trkpt><trkpt lat="40.28590511773451" lon="9.631943464085017"><ele>60.0</ele><time>2026-04-30T06:13:21.033Z</time></trkpt><trkpt lat="40.28601853538475" lon="9.632083200247067"><ele>60.0</ele><time>2026-04-30T06:13:22.033Z</time></trkpt><trkpt lat="40.28613928720601" lon="9.632218316163032"><ele>59.0</ele><time>2026-04-30T06:13:23.033Z</time></trkpt><trkpt lat="40.28625233971366" lon="9.632346749097358"><ele>58.0</ele><time>2026-04-30T06:13:24.033Z</time></trkpt><trkpt lat="40.28635883743939" lon="9.63247631667889"><ele>57.0</ele><time>2026-04-30T06:13:25.033Z</time></trkpt><trkpt lat="40.28646783391418" lon="9.632604592814424"><ele>56.0</ele><time>2026-04-30T06:13:26.034Z</time></trkpt><trkpt lat="40.2865759761431" lon="9.632742904969874"><ele>57.0</ele><time>2026-04-30T06:13:27.034Z</time></trkpt><trkpt lat="40.28667982422378" lon="9.63287744387192"><ele>58.0</ele><time>2026-04-30T06:13:28.034Z</time></trkpt><trkpt lat="40.28678783234907" lon="9.633013525010558"><ele>59.0</ele><time>2026-04-30T06:13:29.034Z</time></trkpt><trkpt lat="40.286898250691216" lon="9.633152071032567"><ele>60.0</ele><time>2026-04-30T06:13:30.034Z</time></trkpt><trkpt lat="40.28700839296169" lon="9.633290019763917"><ele>60.0</ele><time>2026-04-30T06:13:31.034Z</time></trkpt><trkpt lat="40.2871248731492" lon="9.633426694853847"><ele>60.0</ele><time>2026-04-30T06:13:32.034Z</time></trkpt><trkpt lat="40.28723987304962" lon="9.633542580326226"><ele>60.0</ele><time>2026-04-30T06:13:33.034Z</time></trkpt><trkpt lat="40.28735049611888" lon="9.633636566427027"><ele>60.0</ele><time>2026-04-30T06:13:34.034Z</time></trkpt><trkpt lat="40.28745647449199" lon="9.633735766383378"><ele>59.75</ele><time>2026-04-30T06:13:35.034Z</time></trkpt><trkpt lat="40.28759458499416" lon="9.633794680467645"><ele>59.5</ele><time>2026-04-30T06:13:36.034Z</time></trkpt><trkpt lat="40.28772781032915" lon="9.633806416341168"><ele>59.25</ele><time>2026-04-30T06:13:37.034Z</time></trkpt><trkpt lat="40.28786135572585" lon="9.633829316355637"><ele>59.0</ele><time>2026-04-30T06:13:38.034Z</time></trkpt><trkpt lat="40.28799977765807" lon="9.633854730513292"><ele>61.25</ele><time>2026-04-30T06:13:39.034Z</time></trkpt><trkpt lat="40.28815239688414" lon="9.633866883945883"><ele>63.5</ele><time>2026-04-30T06:13:40.034Z</time></trkpt><trkpt lat="40.288281715690665" lon="9.633896727121964"><ele>65.75</ele><time>2026-04-30T06:13:41.034Z</time></trkpt><trkpt lat="40.28839422161526" lon="9.633946071465864"><ele>68.0</ele><time>2026-04-30T06:13:42.034Z</time></trkpt><trkpt lat="40.2885010167067" lon="9.634013301552368"><ele>68.0</ele><time>2026-04-30T06:13:43.034Z</time></trkpt><trkpt lat="40.28859789593622" lon="9.634099825864777"><ele>68.0</ele><time>2026-04-30T06:13:44.034Z</time></trkpt><trkpt lat="40.2886910003797" lon="9.634210171879518"><ele>68.0</ele><time>2026-04-30T06:13:45.034Z</time></trkpt><trkpt lat="40.288794177118646" lon="9.634344309697372"><ele>68.0</ele><time>2026-04-30T06:13:46.034Z</time></trkpt><trkpt lat="40.28890432280699" lon="9.634487668306885"><ele>71.33333333333334</ele><time>2026-04-30T06:13:47.034Z</time></trkpt><trkpt lat="40.289015308889375" lon="9.634634121918907"><ele>74.66666666666667</ele><time>2026-04-30T06:13:48.034Z</time></trkpt><trkpt lat="40.289123196763406" lon="9.634781753572417"><ele>78.0</ele><time>2026-04-30T06:13:49.034Z</time></trkpt><trkpt lat="40.28922455648461" lon="9.634924696996245"><ele>78.0</ele><time>2026-04-30T06:13:50.034Z</time></trkpt><trkpt lat="40.28930808425333" lon="9.6350738293983"><ele>78.0</ele><time>2026-04-30T06:13:51.034Z</time></trkpt><trkpt lat="40.28941212864467" lon="9.635200299299553"><ele>78.0</ele><time>2026-04-30T06:13:52.034Z</time></trkpt><trkpt lat="40.28950136760032" lon="9.635337674980203"><ele>78.0</ele><time>2026-04-30T06:13:53.034Z</time></trkpt><trkpt lat="40.289594037827555" lon="9.635481203920579"><ele>77.75</ele><time>2026-04-30T06:13:54.034Z</time></trkpt><trkpt lat="40.2896833020826" lon="9.63561979635974"><ele>77.5</ele><time>2026-04-30T06:13:55.034Z</time></trkpt><trkpt lat="40.289763852311026" lon="9.635757679002237"><ele>77.25</ele><time>2026-04-30T06:13:56.034Z</time></trkpt><trkpt lat="40.2898386492668" lon="9.635886982899708"><ele>77.0</ele><time>2026-04-30T06:13:57.034Z</time></trkpt><trkpt lat="40.289896138297465" lon="9.636008135622859"><ele>77.0</ele><time>2026-04-30T06:13:58.034Z</time></trkpt><trkpt lat="40.28993841248194" lon="9.63612876521322"><ele>77.0</ele><time>2026-04-30T06:13:59.034Z</time></trkpt><trkpt lat="40.28995830258978" lon="9.636247196618442"><ele>77.0</ele><time>2026-04-30T06:14:00.035Z</time></trkpt><trkpt lat="40.28994108298397" lon="9.636362845603022"><ele>77.0</ele><time>2026-04-30T06:14:01.035Z</time></trkpt><trkpt lat="40.28990907214989" lon="9.636470283137948"><ele>77.0</ele><time>2026-04-30T06:14:02.035Z</time></trkpt><trkpt lat="40.289855376134824" lon="9.636567664703069"><ele>78.75</ele><time>2026-04-30T06:14:03.035Z</time></trkpt><trkpt lat="40.28979184667454" lon="9.63668158522327"><ele>80.5</ele><time>2026-04-30T06:14:04.035Z</time></trkpt><trkpt lat="40.28971815080194" lon="9.636807326161527"><ele>82.25</ele><time>2026-04-30T06:14:05.035Z</time></trkpt><trkpt lat="40.28964843636057" lon="9.636929182897171"><ele>84.0</ele><time>2026-04-30T06:14:06.035Z</time></trkpt><trkpt lat="40.289573690080786" lon="9.637037374292929"><ele>84.4</ele><time>2026-04-30T06:14:07.035Z</time></trkpt><trkpt lat="40.28948945211226" lon="9.637132901210391"><ele>84.80000000000001</ele><time>2026-04-30T06:14:08.035Z</time></trkpt><trkpt lat="40.28941155397594" lon="9.63723081147836"><ele>85.19999999999999</ele><time>2026-04-30T06:14:09.035Z</time></trkpt><trkpt lat="40.28932576618452" lon="9.637315104660571"><ele>85.6</ele><time>2026-04-30T06:14:10.035Z</time></trkpt><trkpt lat="40.28922418928074" lon="9.637376802147742"><ele>86.0</ele><time>2026-04-30T06:14:11.035Z</time></trkpt><trkpt lat="40.28916088024495" lon="9.63746550813313"><ele>86.0</ele><time>2026-04-30T06:14:12.035Z</time></trkpt><trkpt lat="40.28911387090405" lon="9.637553206870228"><ele>86.0</ele><time>2026-04-30T06:14:13.035Z</time></trkpt><trkpt lat="40.289059145240344" lon="9.637631240081156"><ele>86.0</ele><time>2026-04-30T06:14:14.035Z</time></trkpt><trkpt lat="40.289034204351076" lon="9.637751477422514"><ele>86.0</ele><time>2026-04-30T06:14:15.035Z</time></trkpt><trkpt lat="40.28904178514057" lon="9.637844921951029"><ele>86.0</ele><time>2026-04-30T06:14:16.035Z</time></trkpt><trkpt lat="40.28908413519302" lon="9.637923684312096"><ele>86.0</ele><time>2026-04-30T06:14:17.035Z</time></trkpt><trkpt lat="40.28912199996542" lon="9.638008002713999"><ele>88.0</ele><time>2026-04-30T06:14:18.035Z</time></trkpt><trkpt lat="40.28917772426308" lon="9.638096411155908"><ele>90.0</ele><time>2026-04-30T06:14:19.035Z</time></trkpt><trkpt lat="40.28923790461527" lon="9.638199198139768"><ele>92.0</ele><time>2026-04-30T06:14:20.035Z</time></trkpt><trkpt lat="40.28930207164522" lon="9.638309209600376"><ele>94.0</ele><time>2026-04-30T06:14:21.035Z</time></trkpt><trkpt lat="40.289370889789815" lon="9.638425001920226"><ele>96.0</ele><time>2026-04-30T06:14:22.035Z</time></trkpt><trkpt lat="40.2894419940626" lon="9.638544058573395"><ele>95.75</ele><time>2026-04-30T06:14:23.035Z</time></trkpt><trkpt lat="40.289512274611326" lon="9.638662609373684"><ele>95.5</ele><time>2026-04-30T06:14:24.035Z</time></trkpt><trkpt lat="40.289595190458755" lon="9.638794228307779"><ele>95.25</ele><time>2026-04-30T06:14:25.035Z</time></trkpt><trkpt lat="40.289676788061385" lon="9.638928816429836"><ele>95.0</ele><time>2026-04-30T06:14:26.035Z</time></trkpt><trkpt lat="40.28973984465748" lon="9.639073951855671"><ele>99.0</ele><time>2026-04-30T06:14:27.035Z</time></trkpt><trkpt lat="40.289820354672536" lon="9.63920598426101"><ele>103.0</ele><time>2026-04-30T06:14:28.035Z</time></trkpt><trkpt lat="40.289902508549396" lon="9.639338955492336"><ele>107.0</ele><time>2026-04-30T06:14:29.035Z</time></trkpt><trkpt lat="40.289981401431646" lon="9.63946370181099"><ele>111.0</ele><time>2026-04-30T06:14:30.035Z</time></trkpt><trkpt lat="40.29005934068821" lon="9.639589033763588"><ele>111.0</ele><time>2026-04-30T06:14:31.035Z</time></trkpt><trkpt lat="40.29013569942627" lon="9.639717424093154"><ele>111.0</ele><time>2026-04-30T06:14:32.035Z</time></trkpt><trkpt lat="40.29020886786001" lon="9.639837831325657"><ele>111.0</ele><time>2026-04-30T06:14:33.036Z</time></trkpt><trkpt lat="40.29026336247611" lon="9.639951895868572"><ele>111.0</ele><time>2026-04-30T06:14:34.036Z</time></trkpt><trkpt lat="40.290302736259875" lon="9.640077376269572"><ele>111.0</ele><time>2026-04-30T06:14:35.036Z</time></trkpt><trkpt lat="40.29033484375354" lon="9.640215487579445"><ele>111.19999999999999</ele><time>2026-04-30T06:14:36.036Z</time></trkpt><trkpt lat="40.29036476331671" lon="9.640351005639001"><ele>111.39999999999999</ele><time>2026-04-30T06:14:37.036Z</time></trkpt><trkpt lat="40.290400342871315" lon="9.640457601170347"><ele>111.6</ele><time>2026-04-30T06:14:38.036Z</time></trkpt><trkpt lat="40.29044553800192" lon="9.640543440725166"><ele>111.8</ele><time>2026-04-30T06:14:39.036Z</time></trkpt><trkpt lat="40.29048679850478" lon="9.640629090729263"><ele>112.0</ele><time>2026-04-30T06:14:40.036Z</time></trkpt><trkpt lat="40.2905828392175" lon="9.640659482796305"><ele>115.00000000000001</ele><time>2026-04-30T06:14:42.036Z</time></trkpt><trkpt lat="40.29061218647818" lon="9.640528296287304"><ele>118.0</ele><time>2026-04-30T06:14:44.036Z</time></trkpt><trkpt lat="40.29062141607278" lon="9.640364033761246"><ele>121.0</ele><time>2026-04-30T06:14:46.036Z</time></trkpt><trkpt lat="40.290620919212316" lon="9.640276738337567"><ele>124.0</ele><time>2026-04-30T06:14:47.036Z</time></trkpt><trkpt lat="40.29063244777858" lon="9.640188044950278"><ele>127.00000000000001</ele><time>2026-04-30T06:14:48.036Z</time></trkpt><trkpt lat="40.2906498904146" lon="9.640089781345893"><ele>130.0</ele><time>2026-04-30T06:14:49.036Z</time></trkpt><trkpt lat="40.290663633618436" lon="9.640005067814313"><ele>131.2</ele><time>2026-04-30T06:14:50.036Z</time></trkpt><trkpt lat="40.2906796223855" lon="9.639906512519815"><ele>132.4</ele><time>2026-04-30T06:14:51.036Z</time></trkpt><trkpt lat="40.29069764136707" lon="9.639797900535887"><ele>133.6</ele><time>2026-04-30T06:14:52.036Z</time></trkpt><trkpt lat="40.29071402769637" lon="9.639700798796436"><ele>134.8</ele><time>2026-04-30T06:14:53.036Z</time></trkpt><trkpt lat="40.29073800900273" lon="9.639558981676725"><ele>136.0</ele><time>2026-04-30T06:14:54.036Z</time></trkpt><trkpt lat="40.29076507560856" lon="9.639382573803811"><ele>136.0</ele><time>2026-04-30T06:14:55.03Z</time></trkpt><trkpt lat="40.29079154209987" lon="9.63920983498543"><ele>136.0</ele><time>2026-04-30T06:14:56.03Z</time></trkpt><trkpt lat="40.29081477930642" lon="9.63905805837886"><ele>136.0</ele><time>2026-04-30T06:14:57.03Z</time></trkpt><trkpt lat="40.29082506032457" lon="9.638902576343945"><ele>136.0</ele><time>2026-04-30T06:14:58.03Z</time></trkpt><trkpt lat="40.290857744932666" lon="9.638761767207978"><ele>135.6</ele><time>2026-04-30T06:14:59.03Z</time></trkpt><trkpt lat="40.2908888120265" lon="9.638614304661312"><ele>135.2</ele><time>2026-04-30T06:15:00.03Z</time></trkpt><trkpt lat="40.290926030960826" lon="9.63847458771206"><ele>134.8</ele><time>2026-04-30T06:15:01.03Z</time></trkpt><trkpt lat="40.290969056822135" lon="9.638341387734878"><ele>134.4</ele><time>2026-04-30T06:15:02.03Z</time></trkpt><trkpt lat="40.29102129722484" lon="9.63821659725102"><ele>134.0</ele><time>2026-04-30T06:15:03.03Z</time></trkpt><trkpt lat="40.29108036095724" lon="9.638099488645652"><ele>134.0</ele><time>2026-04-30T06:15:04.03Z</time></trkpt><trkpt lat="40.29114633586516" lon="9.637985442103874"><ele>134.0</ele><time>2026-04-30T06:15:05.03Z</time></trkpt><trkpt lat="40.291217456854085" lon="9.637881224881198"><ele>134.0</ele><time>2026-04-30T06:15:06.03Z</time></trkpt><trkpt lat="40.291295938153866" lon="9.637786154444711"><ele>134.0</ele><time>2026-04-30T06:15:07.03Z</time></trkpt><trkpt lat="40.291380519537974" lon="9.637702074980556"><ele>134.0</ele><time>2026-04-30T06:15:08.03Z</time></trkpt><trkpt lat="40.29147054389481" lon="9.637628730262566"><ele>136.4</ele><time>2026-04-30T06:15:09.03Z</time></trkpt><trkpt lat="40.291568134441455" lon="9.637563051699619"><ele>138.8</ele><time>2026-04-30T06:15:10.03Z</time></trkpt><trkpt lat="40.291666997919776" lon="9.63751242855282"><ele>141.2</ele><time>2026-04-30T06:15:11.03Z</time></trkpt><trkpt lat="40.29176305054548" lon="9.637479891217662"><ele>143.6</ele><time>2026-04-30T06:15:12.03Z</time></trkpt><trkpt lat="40.29186008625055" lon="9.637471029995464"><ele>146.0</ele><time>2026-04-30T06:15:13.031Z</time></trkpt><trkpt lat="40.291958551888335" lon="9.637482137167002"><ele>146.0</ele><time>2026-04-30T06:15:14.031Z</time></trkpt><trkpt lat="40.29206666179529" lon="9.637501676546128"><ele>146.0</ele><time>2026-04-30T06:15:15.031Z</time></trkpt><trkpt lat="40.29218158688452" lon="9.637519290356872"><ele>146.0</ele><time>2026-04-30T06:15:16.031Z</time></trkpt><trkpt lat="40.29229858251701" lon="9.63753254475096"><ele>146.0</ele><time>2026-04-30T06:15:17.031Z</time></trkpt><trkpt lat="40.292417290053734" lon="9.637541143134516"><ele>149.5</ele><time>2026-04-30T06:15:18.031Z</time></trkpt><trkpt lat="40.292536096444664" lon="9.637537362222306"><ele>153.0</ele><time>2026-04-30T06:15:19.031Z</time></trkpt><trkpt lat="40.29266487878524" lon="9.637536813598565"><ele>156.5</ele><time>2026-04-30T06:15:20.031Z</time></trkpt><trkpt lat="40.29279189855729" lon="9.637529935204503"><ele>160.0</ele><time>2026-04-30T06:15:21.031Z</time></trkpt><trkpt lat="40.292930374771" lon="9.637507269546797"><ele>160.0</ele><time>2026-04-30T06:15:22.031Z</time></trkpt><trkpt lat="40.29307671744653" lon="9.637487707438416"><ele>160.0</ele><time>2026-04-30T06:15:23.031Z</time></trkpt><trkpt lat="40.29320715521817" lon="9.637472478191036"><ele>160.0</ele><time>2026-04-30T06:15:24.031Z</time></trkpt><trkpt lat="40.29331688615447" lon="9.637476477562055"><ele>160.0</ele><time>2026-04-30T06:15:25.031Z</time></trkpt><trkpt lat="40.2933979385051" lon="9.637541089384898"><ele>163.0</ele><time>2026-04-30T06:15:26.031Z</time></trkpt><trkpt lat="40.29346333183664" lon="9.637628049938439"><ele>166.0</ele><time>2026-04-30T06:15:27.031Z</time></trkpt><trkpt lat="40.293539868520654" lon="9.637674041329484"><ele>169.0</ele><time>2026-04-30T06:15:28.031Z</time></trkpt><trkpt lat="40.29365211502605" lon="9.637694256616275"><ele>172.0</ele><time>2026-04-30T06:15:30.031Z</time></trkpt><trkpt lat="40.29376989057292" lon="9.637667707925662"><ele>175.0</ele><time>2026-04-30T06:15:32.031Z</time></trkpt><trkpt lat="40.293857065485845" lon="9.637591029587854"><ele>175.0</ele><time>2026-04-30T06:15:34.031Z</time></trkpt><trkpt lat="40.293912377817776" lon="9.637527334480732"><ele>175.0</ele><time>2026-04-30T06:15:35.031Z</time></trkpt><trkpt lat="40.29394503189327" lon="9.6374526599771"><ele>175.0</ele><time>2026-04-30T06:15:36.031Z</time></trkpt><trkpt lat="40.29402300133274" lon="9.637331944759733"><ele>175.0</ele><time>2026-04-30T06:15:38.031Z</time></trkpt><trkpt lat="40.29414449481138" lon="9.637267453281039"><ele>175.0</ele><time>2026-04-30T06:15:40.031Z</time></trkpt><trkpt lat="40.294221872787254" lon="9.637249339003233"><ele>179.5</ele><time>2026-04-30T06:15:41.031Z</time></trkpt><trkpt lat="40.29432591376984" lon="9.63720697717389"><ele>184.0</ele><time>2026-04-30T06:15:42.031Z</time></trkpt><trkpt lat="40.29447142794249" lon="9.637144318615027"><ele>188.5</ele><time>2026-04-30T06:15:43.031Z</time></trkpt><trkpt lat="40.2946372422094" lon="9.637103867723422"><ele>193.0</ele><time>2026-04-30T06:15:44.031Z</time></trkpt><trkpt lat="40.294783094802945" lon="9.63707551401964"><ele>190.2</ele><time>2026-04-30T06:15:45.031Z</time></trkpt><trkpt lat="40.294910028605486" lon="9.637065473025768"><ele>187.4</ele><time>2026-04-30T06:15:46.031Z</time></trkpt><trkpt lat="40.29502288456994" lon="9.637056139265404"><ele>184.6</ele><time>2026-04-30T06:15:47.032Z</time></trkpt><trkpt lat="40.2951113647372" lon="9.637036173533481"><ele>181.79999999999998</ele><time>2026-04-30T06:15:48.031Z</time></trkpt><trkpt lat="40.295187240547975" lon="9.63698888707254"><ele>179.0</ele><time>2026-04-30T06:15:49.031Z</time></trkpt><trkpt lat="40.29526256401731" lon="9.63693013595106"><ele>179.0</ele><time>2026-04-30T06:15:50.031Z</time></trkpt><trkpt lat="40.29534827674023" lon="9.636867157723653"><ele>179.0</ele><time>2026-04-30T06:15:51.031Z</time></trkpt><trkpt lat="40.295440328437984" lon="9.636821063277324"><ele>179.0</ele><time>2026-04-30T06:15:52.031Z</time></trkpt><trkpt lat="40.29553777420017" lon="9.636802991614703"><ele>179.0</ele><time>2026-04-30T06:15:53.031Z</time></trkpt><trkpt lat="40.295626598688514" lon="9.636811764837255"><ele>179.0</ele><time>2026-04-30T06:15:54.031Z</time></trkpt><trkpt lat="40.29572244816786" lon="9.636834259083447"><ele>182.83333333333331</ele><time>2026-04-30T06:15:55.031Z</time></trkpt><trkpt lat="40.29581397756442" lon="9.636860620706365"><ele>186.66666666666666</ele><time>2026-04-30T06:15:56.031Z</time></trkpt><trkpt lat="40.295892219045285" lon="9.63686645539107"><ele>190.5</ele><time>2026-04-30T06:15:57.031Z</time></trkpt><trkpt lat="40.2959623901012" lon="9.63685048236808"><ele>194.33333333333331</ele><time>2026-04-30T06:15:58.031Z</time></trkpt><trkpt lat="40.296023857893346" lon="9.636803200707675"><ele>198.16666666666666</ele><time>2026-04-30T06:15:59.031Z</time></trkpt><trkpt lat="40.296079040495975" lon="9.636728974009708"><ele>202.0</ele><time>2026-04-30T06:16:00.031Z</time></trkpt><trkpt lat="40.29613706384665" lon="9.636646925900793"><ele>202.0</ele><time>2026-04-30T06:16:01.031Z</time></trkpt><trkpt lat="40.296198529603814" lon="9.636548458077614"><ele>202.0</ele><time>2026-04-30T06:16:02.031Z</time></trkpt><trkpt lat="40.296252315341924" lon="9.63644957371455"><ele>202.0</ele><time>2026-04-30T06:16:03.031Z</time></trkpt><trkpt lat="40.29631640800701" lon="9.636321069242975"><ele>202.0</ele><time>2026-04-30T06:16:04.031Z</time></trkpt><trkpt lat="40.29633411436709" lon="9.636201429260309"><ele>202.0</ele><time>2026-04-30T06:16:05.031Z</time></trkpt><trkpt lat="40.296337584451344" lon="9.636087425438618"><ele>204.8</ele><time>2026-04-30T06:16:06.031Z</time></trkpt><trkpt lat="40.2963520114121" lon="9.635963952527478"><ele>207.6</ele><time>2026-04-30T06:16:08.031Z</time></trkpt><trkpt lat="40.29644014935237" lon="9.635924068749732"><ele>210.40000000000003</ele><time>2026-04-30T06:16:09.031Z</time></trkpt><trkpt lat="40.296517216005675" lon="9.635855289662999"><ele>213.20000000000002</ele><time>2026-04-30T06:16:10.032Z</time></trkpt><trkpt lat="40.296613055387816" lon="9.635775636083455"><ele>216.0</ele><time>2026-04-30T06:16:11.032Z</time></trkpt><trkpt lat="40.29667089076362" lon="9.635686131257666"><ele>216.0</ele><time>2026-04-30T06:16:12.032Z</time></trkpt><trkpt lat="40.296749535149395" lon="9.63558437029222"><ele>216.00000000000003</ele><time>2026-04-30T06:16:13.032Z</time></trkpt><trkpt lat="40.296820663797064" lon="9.635481002253567"><ele>216.00000000000003</ele><time>2026-04-30T06:16:14.032Z</time></trkpt><trkpt lat="40.296889763971556" lon="9.635367869148006"><ele>216.0</ele><time>2026-04-30T06:16:15.032Z</time></trkpt><trkpt lat="40.296960590316786" lon="9.635254722108215"><ele>216.0</ele><time>2026-04-30T06:16:16.032Z</time></trkpt><trkpt lat="40.29717464216792" lon="9.63478080774404"><ele>220.5</ele><time>2026-04-30T06:16:17.032Z</time></trkpt><trkpt lat="40.2972624163102" lon="9.634639667329681"><ele>225.0</ele><time>2026-04-30T06:16:18.032Z</time></trkpt><trkpt lat="40.29734819945093" lon="9.634502761810639"><ele>229.5</ele><time>2026-04-30T06:16:19.032Z</time></trkpt><trkpt lat="40.29743046601724" lon="9.634367452323279"><ele>234.0</ele><time>2026-04-30T06:16:20.032Z</time></trkpt><trkpt lat="40.29753442380651" lon="9.634272414761147"><ele>234.0</ele><time>2026-04-30T06:16:21.032Z</time></trkpt><trkpt lat="40.29762703549876" lon="9.634156065134407"><ele>234.0</ele><time>2026-04-30T06:16:22.032Z</time></trkpt><trkpt lat="40.297723063869995" lon="9.63405671136306"><ele>234.0</ele><time>2026-04-30T06:16:23.032Z</time></trkpt><trkpt lat="40.29780149293355" lon="9.633943147600382"><ele>234.0</ele><time>2026-04-30T06:16:24.032Z</time></trkpt><trkpt lat="40.29786336395141" lon="9.633835778619694"><ele>234.0</ele><time>2026-04-30T06:16:25.032Z</time></trkpt><trkpt lat="40.29789568294699" lon="9.633743320946959"><ele>234.0</ele><time>2026-04-30T06:16:26.032Z</time></trkpt><trkpt lat="40.29796885408664" lon="9.633686246189855"><ele>234.0</ele><time>2026-04-30T06:16:28.032Z</time></trkpt><trkpt lat="40.29797617322362" lon="9.633779505175465"><ele>234.0</ele><time>2026-04-30T06:16:29.032Z</time></trkpt><trkpt lat="40.29791562647731" lon="9.633868252264469"><ele>234.0</ele><time>2026-04-30T06:16:31.032Z</time></trkpt><trkpt lat="40.297901268250286" lon="9.633955447082753"><ele>234.0</ele><time>2026-04-30T06:16:32.032Z</time></trkpt><trkpt lat="40.29786495204301" lon="9.634090206678028"><ele>234.0</ele><time>2026-04-30T06:16:33.032Z</time></trkpt><trkpt lat="40.29782309675009" lon="9.634222769487929"><ele>234.0</ele><time>2026-04-30T06:16:34.032Z</time></trkpt><trkpt lat="40.29778155379546" lon="9.634356022969472"><ele>234.0</ele><time>2026-04-30T06:16:35.032Z</time></trkpt><trkpt lat="40.29773500166617" lon="9.634507195104263"><ele>234.0</ele><time>2026-04-30T06:16:36.032Z</time></trkpt><trkpt lat="40.29768875917786" lon="9.634666179571173"><ele>236.0</ele><time>2026-04-30T06:16:37.032Z</time></trkpt><trkpt lat="40.29765059650153" lon="9.634829257876383"><ele>238.0</ele><time>2026-04-30T06:16:38.032Z</time></trkpt><trkpt lat="40.297614568830774" lon="9.634990652020985"><ele>240.0</ele><time>2026-04-30T06:16:39.032Z</time></trkpt><trkpt lat="40.29757651003098" lon="9.635199421083737"><ele>242.0</ele><time>2026-04-30T06:16:40.032Z</time></trkpt><trkpt lat="40.29752943646019" lon="9.635343368772771"><ele>246.00000000000003</ele><time>2026-04-30T06:16:41.032Z</time></trkpt><trkpt lat="40.29747661872394" lon="9.635470315453148"><ele>250.0</ele><time>2026-04-30T06:16:42.032Z</time></trkpt><trkpt lat="40.29742668767219" lon="9.635590601846724"><ele>254.0</ele><time>2026-04-30T06:16:43.032Z</time></trkpt><trkpt lat="40.297383831709325" lon="9.635683968810266"><ele>258.0</ele><time>2026-04-30T06:16:44.033Z</time></trkpt><trkpt lat="40.29735615203573" lon="9.63576065148008"><ele>262.0</ele><time>2026-04-30T06:16:45.033Z</time></trkpt><trkpt lat="40.29736676816676" lon="9.635842551421359"><ele>266.0</ele><time>2026-04-30T06:16:47.03Z</time></trkpt><trkpt lat="40.29743916593003" lon="9.635842990384381"><ele>266.0</ele><time>2026-04-30T06:16:49.026Z</time></trkpt><trkpt lat="40.29751867381373" lon="9.635687760398882"><ele>266.0</ele><time>2026-04-30T06:16:51.024Z</time></trkpt><trkpt lat="40.29755786501627" lon="9.635583487666652"><ele>266.0</ele><time>2026-04-30T06:16:52.022Z</time></trkpt><trkpt lat="40.29762460388518" lon="9.635494780291653"><ele>266.0</ele><time>2026-04-30T06:16:53.021Z</time></trkpt><trkpt lat="40.29769507233342" lon="9.63541547781735"><ele>266.0</ele><time>2026-04-30T06:16:54.02Z</time></trkpt><trkpt lat="40.2977585286467" lon="9.635307027113065"><ele>261.2</ele><time>2026-04-30T06:16:55.019Z</time></trkpt><trkpt lat="40.29784194833113" lon="9.63520934918089"><ele>256.40000000000003</ele><time>2026-04-30T06:16:56.018Z</time></trkpt><trkpt lat="40.29793785383803" lon="9.635146605351046"><ele>251.6</ele><time>2026-04-30T06:16:57.017Z</time></trkpt><trkpt lat="40.29802287418206" lon="9.635057937630647"><ele>246.8</ele><time>2026-04-30T06:16:58.016Z</time></trkpt><trkpt lat="40.29811129043834" lon="9.634964515574552"><ele>242.0</ele><time>2026-04-30T06:16:59.015Z</time></trkpt><trkpt lat="40.298201368156924" lon="9.634861603096438"><ele>249.75</ele><time>2026-04-30T06:17:00.015Z</time></trkpt><trkpt lat="40.298285549071444" lon="9.634757477385634"><ele>257.5</ele><time>2026-04-30T06:17:01.014Z</time></trkpt><trkpt lat="40.29836030763495" lon="9.634641491113747"><ele>265.25</ele><time>2026-04-30T06:17:02.013Z</time></trkpt><trkpt lat="40.29842345846182" lon="9.634512592459615"><ele>273.0</ele><time>2026-04-30T06:17:03.013Z</time></trkpt><trkpt lat="40.29848835782317" lon="9.634375901127202"><ele>273.0</ele><time>2026-04-30T06:17:04.012Z</time></trkpt><trkpt lat="40.29855159219572" lon="9.634251333095644"><ele>273.0</ele><time>2026-04-30T06:17:05.012Z</time></trkpt><trkpt lat="40.29862424019384" lon="9.63412950849954"><ele>273.0</ele><time>2026-04-30T06:17:06.011Z</time></trkpt><trkpt lat="40.29869497107686" lon="9.634008348687727"><ele>273.0</ele><time>2026-04-30T06:17:07.011Z</time></trkpt><trkpt lat="40.29876033691698" lon="9.633891820764902"><ele>273.0</ele><time>2026-04-30T06:17:08.01Z</time></trkpt><trkpt lat="40.29883030607108" lon="9.633779411217537"><ele>273.0</ele><time>2026-04-30T06:17:09.01Z</time></trkpt><trkpt lat="40.298887686562125" lon="9.63367453080836"><ele>273.0</ele><time>2026-04-30T06:17:10.009Z</time></trkpt><trkpt lat="40.29892863703606" lon="9.633539279973728"><ele>273.0</ele><time>2026-04-30T06:17:11.009Z</time></trkpt><trkpt lat="40.29896581211608" lon="9.633411744220597"><ele>273.0</ele><time>2026-04-30T06:17:12.009Z</time></trkpt><trkpt lat="40.29901638635884" lon="9.633309555152893"><ele>279.6</ele><time>2026-04-30T06:17:13.008Z</time></trkpt><trkpt lat="40.29906393293196" lon="9.63322024984638"><ele>286.20000000000005</ele><time>2026-04-30T06:17:14.008Z</time></trkpt><trkpt lat="40.299149835501225" lon="9.633161229992846"><ele>292.8</ele><time>2026-04-30T06:17:15.008Z</time></trkpt><trkpt lat="40.299221141647024" lon="9.6330630848597"><ele>299.40000000000003</ele><time>2026-04-30T06:17:16.008Z</time></trkpt><trkpt lat="40.299302424474256" lon="9.632980374200539"><ele>306.0</ele><time>2026-04-30T06:17:17.007Z</time></trkpt><trkpt lat="40.299374319979485" lon="9.63287164688885"><ele>307.40000000000003</ele><time>2026-04-30T06:17:18.007Z</time></trkpt><trkpt lat="40.299439820556906" lon="9.632757877676738"><ele>308.8</ele><time>2026-04-30T06:17:19.007Z</time></trkpt><trkpt lat="40.299500002202734" lon="9.632640465470022"><ele>310.20000000000005</ele><time>2026-04-30T06:17:20.007Z</time></trkpt><trkpt lat="40.299561796470066" lon="9.632517266439729"><ele>311.6</ele><time>2026-04-30T06:17:21.006Z</time></trkpt><trkpt lat="40.299608741176634" lon="9.632379630667069"><ele>313.0</ele><time>2026-04-30T06:17:22.006Z</time></trkpt><trkpt lat="40.29964866109756" lon="9.632268228149831"><ele>313.0</ele><time>2026-04-30T06:17:23.006Z</time></trkpt><trkpt lat="40.29969063967221" lon="9.632186184690976"><ele>313.0</ele><time>2026-04-30T06:17:24.006Z</time></trkpt><trkpt lat="40.299763982427244" lon="9.632197053091835"><ele>313.0</ele><time>2026-04-30T06:17:26.006Z</time></trkpt><trkpt lat="40.29977668066374" lon="9.63232225934978"><ele>313.0</ele><time>2026-04-30T06:17:28.005Z</time></trkpt><trkpt lat="40.299725872916945" lon="9.632470074966333"><ele>313.0</ele><time>2026-04-30T06:17:30.005Z</time></trkpt><trkpt lat="40.299700503714014" lon="9.632569826552729"><ele>313.0</ele><time>2026-04-30T06:17:31.005Z</time></trkpt><trkpt lat="40.29966823022143" lon="9.6326681915464"><ele>313.0</ele><time>2026-04-30T06:17:32.005Z</time></trkpt><trkpt lat="40.29962410661561" lon="9.632753235684145"><ele>313.0</ele><time>2026-04-30T06:17:33.005Z</time></trkpt><trkpt lat="40.29958555400152" lon="9.632822559124326"><ele>313.0</ele><time>2026-04-30T06:17:34.005Z</time></trkpt><trkpt lat="40.299565468862994" lon="9.632918931877908"><ele>313.0</ele><time>2026-04-30T06:17:36.005Z</time></trkpt><trkpt lat="40.29965587349447" lon="9.632949436155949"><ele>313.0</ele><time>2026-04-30T06:17:38.005Z</time></trkpt><trkpt lat="40.29974621614569" lon="9.632827446638021"><ele>313.0</ele><time>2026-04-30T06:17:40.005Z</time></trkpt><trkpt lat="40.29982043314885" lon="9.632785800018478"><ele>312.6</ele><time>2026-04-30T06:17:42.004Z</time></trkpt><trkpt lat="40.29985797400087" lon="9.632890368712744"><ele>312.20000000000005</ele><time>2026-04-30T06:17:44.004Z</time></trkpt><trkpt lat="40.29984383545183" lon="9.633066826152627"><ele>311.8</ele><time>2026-04-30T06:17:46.004Z</time></trkpt><trkpt lat="40.29978842560219" lon="9.633230628928702"><ele>311.40000000000003</ele><time>2026-04-30T06:17:48.004Z</time></trkpt><trkpt lat="40.29979011015633" lon="9.633341591035848"><ele>311.0</ele><time>2026-04-30T06:17:49.004Z</time></trkpt><trkpt lat="40.29979691875473" lon="9.633453537051357"><ele>311.0</ele><time>2026-04-30T06:17:50.004Z</time></trkpt><trkpt lat="40.299788943031835" lon="9.633556874128386"><ele>311.0</ele><time>2026-04-30T06:17:51.004Z</time></trkpt><trkpt lat="40.299784144618854" lon="9.633659559265638"><ele>311.0</ele><time>2026-04-30T06:17:52.004Z</time></trkpt><trkpt lat="40.29978230692627" lon="9.633763319079149"><ele>311.0</ele><time>2026-04-30T06:17:53.004Z</time></trkpt><trkpt lat="40.29977279524227" lon="9.633859048811106"><ele>311.0</ele><time>2026-04-30T06:17:54.004Z</time></trkpt><trkpt lat="40.29976095307663" lon="9.633954936391529"><ele>311.0</ele><time>2026-04-30T06:17:55.003Z</time></trkpt><trkpt lat="40.29979857184852" lon="9.634053423436827"><ele>311.0</ele><time>2026-04-30T06:17:57.003Z</time></trkpt><trkpt lat="40.299869715679606" lon="9.63406915016496"><ele>311.0</ele><time>2026-04-30T06:17:59.003Z</time></trkpt><trkpt lat="40.299918812064796" lon="9.634013696912186"><ele>311.0</ele><time>2026-04-30T06:18:20.003Z</time></trkpt><trkpt lat="40.299918140501006" lon="9.633872476237167"><ele>311.0</ele><time>2026-04-30T06:18:21.003Z</time></trkpt><trkpt lat="40.29993346502847" lon="9.63373208306729"><ele>311.0</ele><time>2026-04-30T06:18:23.003Z</time></trkpt><trkpt lat="40.29994494999349" lon="9.63363671055844"><ele>311.0</ele><time>2026-04-30T06:18:24.003Z</time></trkpt><trkpt lat="40.2999630025077" lon="9.633542983363679"><ele>311.0</ele><time>2026-04-30T06:18:25.003Z</time></trkpt><trkpt lat="40.299984392166714" lon="9.63345993934538"><ele>311.0</ele><time>2026-04-30T06:18:26.003Z</time></trkpt><trkpt lat="40.30001923932808" lon="9.633342926966943"><ele>311.0</ele><time>2026-04-30T06:18:27.003Z</time></trkpt><trkpt lat="40.30005586989018" lon="9.633231609407146"><ele>311.0</ele><time>2026-04-30T06:18:28.003Z</time></trkpt><trkpt lat="40.30009477191085" lon="9.633122686691816"><ele>311.0</ele><time>2026-04-30T06:18:29.003Z</time></trkpt><trkpt lat="40.300140952920984" lon="9.633002544143768"><ele>311.0</ele><time>2026-04-30T06:18:30.003Z</time></trkpt><trkpt lat="40.3001914150055" lon="9.632885448542757"><ele>313.20000000000005</ele><time>2026-04-30T06:18:31.003Z</time></trkpt><trkpt lat="40.30023363652808" lon="9.632765910953392"><ele>315.40000000000003</ele><time>2026-04-30T06:18:32.003Z</time></trkpt><trkpt lat="40.30031202407095" lon="9.632677113154191"><ele>317.6</ele><time>2026-04-30T06:18:33.003Z</time></trkpt><trkpt lat="40.30038365117412" lon="9.632572708600922"><ele>319.8</ele><time>2026-04-30T06:18:34.003Z</time></trkpt><trkpt lat="40.30046585740186" lon="9.632465232758431"><ele>322.0</ele><time>2026-04-30T06:18:35.003Z</time></trkpt><trkpt lat="40.30055210418436" lon="9.632361037633155"><ele>317.5</ele><time>2026-04-30T06:18:36.003Z</time></trkpt><trkpt lat="40.300644016371244" lon="9.632249279218918"><ele>313.0</ele><time>2026-04-30T06:18:37.003Z</time></trkpt><trkpt lat="40.30073084733257" lon="9.632135924934266"><ele>308.5</ele><time>2026-04-30T06:18:38.003Z</time></trkpt><trkpt lat="40.30081934234328" lon="9.6320226450882"><ele>304.0</ele><time>2026-04-30T06:18:39.003Z</time></trkpt><trkpt lat="40.30090953222571" lon="9.631921154313586"><ele>304.0</ele><time>2026-04-30T06:18:40.003Z</time></trkpt><trkpt lat="40.3010097427963" lon="9.631821165543101"><ele>304.0</ele><time>2026-04-30T06:18:41.003Z</time></trkpt><trkpt lat="40.30109596503711" lon="9.631694748067703"><ele>304.0</ele><time>2026-04-30T06:18:42.003Z</time></trkpt><trkpt lat="40.30118088278161" lon="9.631573841986024"><ele>304.0</ele><time>2026-04-30T06:18:43.003Z</time></trkpt><trkpt lat="40.30125187199244" lon="9.631445715110749"><ele>304.0</ele><time>2026-04-30T06:18:44.003Z</time></trkpt><trkpt lat="40.30132550371962" lon="9.631302958747378"><ele>304.0</ele><time>2026-04-30T06:18:45.003Z</time></trkpt><trkpt lat="40.301382070587934" lon="9.631168515383678"><ele>304.0</ele><time>2026-04-30T06:18:46.003Z</time></trkpt><trkpt lat="40.301436418375" lon="9.631015655886625"><ele>304.0</ele><time>2026-04-30T06:18:47.003Z</time></trkpt><trkpt lat="40.30150448167694" lon="9.630859986777809"><ele>296.75</ele><time>2026-04-30T06:18:48.003Z</time></trkpt><trkpt lat="40.30156598230629" lon="9.630697813578406"><ele>289.5</ele><time>2026-04-30T06:18:49.003Z</time></trkpt><trkpt lat="40.30162109478876" lon="9.630543690159588"><ele>282.25</ele><time>2026-04-30T06:18:50.003Z</time></trkpt><trkpt lat="40.301686245305454" lon="9.630398611973881"><ele>275.0</ele><time>2026-04-30T06:18:51.003Z</time></trkpt><trkpt lat="40.30175570664316" lon="9.630245633887926"><ele>275.0</ele><time>2026-04-30T06:18:52.003Z</time></trkpt><trkpt lat="40.301835518825065" lon="9.63012094975485"><ele>275.0</ele><time>2026-04-30T06:18:53.003Z</time></trkpt><trkpt lat="40.301921107192754" lon="9.629986333563691"><ele>275.0</ele><time>2026-04-30T06:18:54.003Z</time></trkpt><trkpt lat="40.3019935033389" lon="9.629840895936411"><ele>275.0</ele><time>2026-04-30T06:18:55.003Z</time></trkpt><trkpt lat="40.302072652642686" lon="9.62969877283659"><ele>275.0</ele><time>2026-04-30T06:18:56.003Z</time></trkpt><trkpt lat="40.30214574708466" lon="9.629544715125588"><ele>275.0</ele><time>2026-04-30T06:18:57.003Z</time></trkpt><trkpt lat="40.30221195328432" lon="9.62938444568509"><ele>275.0</ele><time>2026-04-30T06:18:58.003Z</time></trkpt><trkpt lat="40.30228043271178" lon="9.629235107254944"><ele>275.0</ele><time>2026-04-30T06:18:59.003Z</time></trkpt><trkpt lat="40.30234183932448" lon="9.629086559422477"><ele>268.0</ele><time>2026-04-30T06:19:00.003Z</time></trkpt><trkpt lat="40.3023993260867" lon="9.628944792438599"><ele>261.0</ele><time>2026-04-30T06:19:01.003Z</time></trkpt><trkpt lat="40.30242895080712" lon="9.628758276772468"><ele>254.0</ele><time>2026-04-30T06:19:02.003Z</time></trkpt><trkpt lat="40.30244402568193" lon="9.628587660777958"><ele>247.0</ele><time>2026-04-30T06:19:03.003Z</time></trkpt><trkpt lat="40.30245721896229" lon="9.628403357895532"><ele>247.0</ele><time>2026-04-30T06:19:04.003Z</time></trkpt><trkpt lat="40.302471240231114" lon="9.628247209213242"><ele>247.0</ele><time>2026-04-30T06:19:05.003Z</time></trkpt><trkpt lat="40.30247269617925" lon="9.62812039133151"><ele>247.0</ele><time>2026-04-30T06:19:06.003Z</time></trkpt><trkpt lat="40.302475383265566" lon="9.628029319552061"><ele>247.0</ele><time>2026-04-30T06:19:07.003Z</time></trkpt><trkpt lat="40.30246682066375" lon="9.627910883640306"><ele>247.0</ele><time>2026-04-30T06:19:08.003Z</time></trkpt><trkpt lat="40.302471956851235" lon="9.627793746139606"><ele>247.0</ele><time>2026-04-30T06:19:10.003Z</time></trkpt><trkpt lat="40.302537627071665" lon="9.627802090700785"><ele>247.0</ele><time>2026-04-30T06:19:12.003Z</time></trkpt><trkpt lat="40.302536322895584" lon="9.627950780689186"><ele>247.0</ele><time>2026-04-30T06:19:14.003Z</time></trkpt><trkpt lat="40.30256549195736" lon="9.628073793367236"><ele>247.0</ele><time>2026-04-30T06:19:15.003Z</time></trkpt><trkpt lat="40.30259541195067" lon="9.628199973172327"><ele>247.0</ele><time>2026-04-30T06:19:16.003Z</time></trkpt><trkpt lat="40.30262504086136" lon="9.628336792071865"><ele>247.0</ele><time>2026-04-30T06:19:17.003Z</time></trkpt><trkpt lat="40.30265105669424" lon="9.62849912830956"><ele>247.0</ele><time>2026-04-30T06:19:18.003Z</time></trkpt><trkpt lat="40.30267337324193" lon="9.628668708452501"><ele>247.0</ele><time>2026-04-30T06:19:19.003Z</time></trkpt><trkpt lat="40.302687701207056" lon="9.6288503297752"><ele>247.0</ele><time>2026-04-30T06:19:20.003Z</time></trkpt><trkpt lat="40.30269224691665" lon="9.629022861168583"><ele>246.25</ele><time>2026-04-30T06:19:21.003Z</time></trkpt><trkpt lat="40.30268926522852" lon="9.629192171540573"><ele>245.5</ele><time>2026-04-30T06:19:22.003Z</time></trkpt><trkpt lat="40.302676459284775" lon="9.629367874698652"><ele>244.75</ele><time>2026-04-30T06:19:23.003Z</time></trkpt><trkpt lat="40.302659467861474" lon="9.629533209280561"><ele>244.0</ele><time>2026-04-30T06:19:24.003Z</time></trkpt><trkpt lat="40.302644880876514" lon="9.62968623712903"><ele>243.25</ele><time>2026-04-30T06:19:25.003Z</time></trkpt><trkpt lat="40.302650554914685" lon="9.629831600592683"><ele>242.5</ele><time>2026-04-30T06:19:26.003Z</time></trkpt><trkpt lat="40.302630725510426" lon="9.62997259432613"><ele>241.75</ele><time>2026-04-30T06:19:27.003Z</time></trkpt><trkpt lat="40.30262479443067" lon="9.630129565214768"><ele>241.0</ele><time>2026-04-30T06:19:28.003Z</time></trkpt><trkpt lat="40.30261366234122" lon="9.630302922095348"><ele>240.75</ele><time>2026-04-30T06:19:29.003Z</time></trkpt><trkpt lat="40.302559487127596" lon="9.630495144363099"><ele>240.5</ele><time>2026-04-30T06:19:30.003Z</time></trkpt><trkpt lat="40.30252841210431" lon="9.630682842313016"><ele>240.25</ele><time>2026-04-30T06:19:31.003Z</time></trkpt><trkpt lat="40.302510241698215" lon="9.630846545006342"><ele>240.0</ele><time>2026-04-30T06:19:32.003Z</time></trkpt><trkpt lat="40.30248381089248" lon="9.630998278003753"><ele>239.25</ele><time>2026-04-30T06:19:33.003Z</time></trkpt><trkpt lat="40.30247211750268" lon="9.631150398039036"><ele>238.5</ele><time>2026-04-30T06:19:34.003Z</time></trkpt><trkpt lat="40.30247037770436" lon="9.63130442148832"><ele>237.75</ele><time>2026-04-30T06:19:35.003Z</time></trkpt><trkpt lat="40.30247343457917" lon="9.631459037357326"><ele>237.0</ele><time>2026-04-30T06:19:36.003Z</time></trkpt><trkpt lat="40.30249212117883" lon="9.631598660458987"><ele>237.0</ele><time>2026-04-30T06:19:37.003Z</time></trkpt><trkpt lat="40.30251066110026" lon="9.631716932490601"><ele>237.0</ele><time>2026-04-30T06:19:38.003Z</time></trkpt><trkpt lat="40.30254771091078" lon="9.63179996601418"><ele>237.0</ele><time>2026-04-30T06:19:39.003Z</time></trkpt><trkpt lat="40.30264331625273" lon="9.631885906711949"><ele>237.0</ele><time>2026-04-30T06:19:41.003Z</time></trkpt><trkpt lat="40.30271135302757" lon="9.631891585702387"><ele>237.0</ele><time>2026-04-30T06:19:42.003Z</time></trkpt><trkpt lat="40.30281188128958" lon="9.631868808515614"><ele>237.0</ele><time>2026-04-30T06:19:43.003Z</time></trkpt><trkpt lat="40.302940522360565" lon="9.631822652953383"><ele>237.0</ele><time>2026-04-30T06:19:44.003Z</time></trkpt><trkpt lat="40.303089124864606" lon="9.631758369813705"><ele>237.0</ele><time>2026-04-30T06:19:45.003Z</time></trkpt><trkpt lat="40.303230679231206" lon="9.631694456115273"><ele>237.0</ele><time>2026-04-30T06:19:46.003Z</time></trkpt><trkpt lat="40.303368942308026" lon="9.631628471717823"><ele>234.25</ele><time>2026-04-30T06:19:47.003Z</time></trkpt><trkpt lat="40.303491610572124" lon="9.631539930075082"><ele>231.5</ele><time>2026-04-30T06:19:48.003Z</time></trkpt><trkpt lat="40.303618554854594" lon="9.631482659566256"><ele>228.75</ele><time>2026-04-30T06:19:49.003Z</time></trkpt><trkpt lat="40.30374352190191" lon="9.631439452727458"><ele>226.0</ele><time>2026-04-30T06:19:50.003Z</time></trkpt><trkpt lat="40.30388072891258" lon="9.631436075271301"><ele>225.5</ele><time>2026-04-30T06:19:51.003Z</time></trkpt><trkpt lat="40.3040279147018" lon="9.631435584951971"><ele>225.0</ele><time>2026-04-30T06:19:52.003Z</time></trkpt><trkpt lat="40.30416605765981" lon="9.631422634086766"><ele>224.5</ele><time>2026-04-30T06:19:53.003Z</time></trkpt><trkpt lat="40.30429900948682" lon="9.631347989639165"><ele>224.0</ele><time>2026-04-30T06:19:54.004Z</time></trkpt><trkpt lat="40.30443708070532" lon="9.631285554117326"><ele>224.0</ele><time>2026-04-30T06:19:55.004Z</time></trkpt><trkpt lat="40.30456799136958" lon="9.631221057507176"><ele>224.0</ele><time>2026-04-30T06:19:56.004Z</time></trkpt><trkpt lat="40.30469619184367" lon="9.631154318153433"><ele>224.0</ele><time>2026-04-30T06:19:57.004Z</time></trkpt><trkpt lat="40.304829152830095" lon="9.631076270468565"><ele>224.0</ele><time>2026-04-30T06:19:58.004Z</time></trkpt><trkpt lat="40.3049693598669" lon="9.630995503083431"><ele>218.66666666666669</ele><time>2026-04-30T06:19:59.004Z</time></trkpt><trkpt lat="40.305108587521296" lon="9.630909363400828"><ele>213.33333333333331</ele><time>2026-04-30T06:20:00.003Z</time></trkpt><trkpt lat="40.30525068416843" lon="9.630819791977064"><ele>208.0</ele><time>2026-04-30T06:20:01.003Z</time></trkpt><trkpt lat="40.30539395597982" lon="9.630729925546179"><ele>208.0</ele><time>2026-04-30T06:20:02.003Z</time></trkpt><trkpt lat="40.305529778287315" lon="9.630632683464832"><ele>208.0</ele><time>2026-04-30T06:20:03.003Z</time></trkpt><trkpt lat="40.30566434885557" lon="9.630544936003847"><ele>208.0</ele><time>2026-04-30T06:20:04.003Z</time></trkpt><trkpt lat="40.30580899851987" lon="9.63045756197302"><ele>205.33333333333331</ele><time>2026-04-30T06:20:05.003Z</time></trkpt><trkpt lat="40.30595889471715" lon="9.630386380097459"><ele>202.66666666666669</ele><time>2026-04-30T06:20:06.003Z</time></trkpt><trkpt lat="40.306115757607664" lon="9.630314988674941"><ele>200.0</ele><time>2026-04-30T06:20:07.003Z</time></trkpt><trkpt lat="40.30626996393386" lon="9.630276133411762"><ele>194.66666666666669</ele><time>2026-04-30T06:20:08.003Z</time></trkpt><trkpt lat="40.30642664251234" lon="9.630216150245651"><ele>189.33333333333334</ele><time>2026-04-30T06:20:09.003Z</time></trkpt><trkpt lat="40.30658103336823" lon="9.630156714629036"><ele>184.0</ele><time>2026-04-30T06:20:10.002Z</time></trkpt><trkpt lat="40.30672978020347" lon="9.630095827563773"><ele>184.0</ele><time>2026-04-30T06:20:11.002Z</time></trkpt><trkpt lat="40.30687031924528" lon="9.630038300221484"><ele>184.0</ele><time>2026-04-30T06:20:12.003Z</time></trkpt><trkpt lat="40.306983259766795" lon="9.629991808578284"><ele>184.0</ele><time>2026-04-30T06:20:13.002Z</time></trkpt><trkpt lat="40.30707675593986" lon="9.629939440069034"><ele>184.0</ele><time>2026-04-30T06:20:14.003Z</time></trkpt><trkpt lat="40.30717175125372" lon="9.629907781883897"><ele>182.2</ele><time>2026-04-30T06:20:15.003Z</time></trkpt><trkpt lat="40.30725935110462" lon="9.629893224140408"><ele>180.39999999999998</ele><time>2026-04-30T06:20:16.003Z</time></trkpt><trkpt lat="40.30733888702357" lon="9.62990693602642"><ele>178.6</ele><time>2026-04-30T06:20:17.003Z</time></trkpt><trkpt lat="40.30741777480586" lon="9.629960580403623"><ele>176.8</ele><time>2026-04-30T06:20:18.003Z</time></trkpt><trkpt lat="40.30748365679912" lon="9.630070446249539"><ele>175.0</ele><time>2026-04-30T06:20:19.003Z</time></trkpt><trkpt lat="40.3075314809699" lon="9.630177540118988"><ele>175.0</ele><time>2026-04-30T06:20:20.003Z</time></trkpt><trkpt lat="40.307597561769185" lon="9.630299159611509"><ele>175.0</ele><time>2026-04-30T06:20:21.003Z</time></trkpt><trkpt lat="40.30766387753959" lon="9.63040475570173"><ele>175.0</ele><time>2026-04-30T06:20:22.003Z</time></trkpt><trkpt lat="40.3077537799007" lon="9.630501661214927"><ele>175.0</ele><time>2026-04-30T06:20:23.003Z</time></trkpt><trkpt lat="40.30783707993349" lon="9.630592476070087"><ele>175.0</ele><time>2026-04-30T06:20:24.003Z</time></trkpt><trkpt lat="40.307922827203335" lon="9.630682860283759"><ele>174.25</ele><time>2026-04-30T06:20:25.003Z</time></trkpt><trkpt lat="40.308031771009865" lon="9.630745052735605"><ele>173.5</ele><time>2026-04-30T06:20:26.003Z</time></trkpt><trkpt lat="40.30816109320896" lon="9.630789508806552"><ele>172.75</ele><time>2026-04-30T06:20:27.003Z</time></trkpt><trkpt lat="40.30831332230689" lon="9.630824972851656"><ele>172.0</ele><time>2026-04-30T06:20:28.003Z</time></trkpt><trkpt lat="40.30846959194728" lon="9.63087267807253"><ele>172.0</ele><time>2026-04-30T06:20:29.003Z</time></trkpt><trkpt lat="40.308631685440425" lon="9.6309177281968"><ele>172.0</ele><time>2026-04-30T06:20:30.003Z</time></trkpt><trkpt lat="40.30878488504303" lon="9.630969992808009"><ele>172.0</ele><time>2026-04-30T06:20:31.003Z</time></trkpt><trkpt lat="40.30893988404194" lon="9.631019736282168"><ele>174.66666666666669</ele><time>2026-04-30T06:20:32.003Z</time></trkpt><trkpt lat="40.30909408493569" lon="9.63109098010633"><ele>177.33333333333334</ele><time>2026-04-30T06:20:33.003Z</time></trkpt><trkpt lat="40.309253732189255" lon="9.63115247816924"><ele>180.0</ele><time>2026-04-30T06:20:34.003Z</time></trkpt><trkpt lat="40.3094048100386" lon="9.631210675128386"><ele>180.0</ele><time>2026-04-30T06:20:35.003Z</time></trkpt><trkpt lat="40.309561123575705" lon="9.631269484467525"><ele>180.0</ele><time>2026-04-30T06:20:36.003Z</time></trkpt><trkpt lat="40.30971308135133" lon="9.631314468028407"><ele>180.0</ele><time>2026-04-30T06:20:37.003Z</time></trkpt><trkpt lat="40.309861791689926" lon="9.63135181770728"><ele>177.25</ele><time>2026-04-30T06:20:38.003Z</time></trkpt><trkpt lat="40.31000608861292" lon="9.63136760537472"><ele>174.5</ele><time>2026-04-30T06:20:39.003Z</time></trkpt><trkpt lat="40.31014224564709" lon="9.631426075404018"><ele>171.75</ele><time>2026-04-30T06:20:40.003Z</time></trkpt><trkpt lat="40.310281526638086" lon="9.631488670200932"><ele>169.0</ele><time>2026-04-30T06:20:41.003Z</time></trkpt><trkpt lat="40.310417330876035" lon="9.631574036976158"><ele>169.0</ele><time>2026-04-30T06:20:42.003Z</time></trkpt><trkpt lat="40.31056375621333" lon="9.631664786215973"><ele>169.0</ele><time>2026-04-30T06:20:43.003Z</time></trkpt><trkpt lat="40.310702491865975" lon="9.631745058755751"><ele>169.0</ele><time>2026-04-30T06:20:44.003Z</time></trkpt><trkpt lat="40.31083606506429" lon="9.631810902575252"><ele>165.25</ele><time>2026-04-30T06:20:45.003Z</time></trkpt><trkpt lat="40.3109659098036" lon="9.631832516004575"><ele>161.5</ele><time>2026-04-30T06:20:46.003Z</time></trkpt><trkpt lat="40.311077213562434" lon="9.631850666524908"><ele>157.75</ele><time>2026-04-30T06:20:47.003Z</time></trkpt><trkpt lat="40.311190178752994" lon="9.63183748910731"><ele>154.0</ele><time>2026-04-30T06:20:48.003Z</time></trkpt><trkpt lat="40.31130133378337" lon="9.63179505854847"><ele>152.25</ele><time>2026-04-30T06:20:49.003Z</time></trkpt><trkpt lat="40.3114372441495" lon="9.631748066908663"><ele>150.5</ele><time>2026-04-30T06:20:50.003Z</time></trkpt><trkpt lat="40.3115767147545" lon="9.631747318866402"><ele>148.75</ele><time>2026-04-30T06:20:51.003Z</time></trkpt><trkpt lat="40.31171041437292" lon="9.631756077904534"><ele>147.0</ele><time>2026-04-30T06:20:52.003Z</time></trkpt><trkpt lat="40.31183501382692" lon="9.631758378177468"><ele>147.0</ele><time>2026-04-30T06:20:53.003Z</time></trkpt><trkpt lat="40.31193319996067" lon="9.63175670114537"><ele>147.0</ele><time>2026-04-30T06:20:54.003Z</time></trkpt><trkpt lat="40.31202354870285" lon="9.63175927784541"><ele>147.0</ele><time>2026-04-30T06:20:55.003Z</time></trkpt><trkpt lat="40.312116429373795" lon="9.631632535401188"><ele>147.0</ele><time>2026-04-30T06:20:56.003Z</time></trkpt><trkpt lat="40.31222266994174" lon="9.631559351885327"><ele>147.0</ele><time>2026-04-30T06:20:57.003Z</time></trkpt><trkpt lat="40.312346541946795" lon="9.631479823237887"><ele>145.25</ele><time>2026-04-30T06:20:58.003Z</time></trkpt><trkpt lat="40.31246503830533" lon="9.631399986839945"><ele>143.5</ele><time>2026-04-30T06:20:59.003Z</time></trkpt><trkpt lat="40.31257829298032" lon="9.631316737482798"><ele>141.75</ele><time>2026-04-30T06:21:00.003Z</time></trkpt><trkpt lat="40.3126776929012" lon="9.631216194355746"><ele>140.0</ele><time>2026-04-30T06:21:01.003Z</time></trkpt><trkpt lat="40.31277481299312" lon="9.631089248492188"><ele>140.0</ele><time>2026-04-30T06:21:02.003Z</time></trkpt><trkpt lat="40.31286173697583" lon="9.630951289719711"><ele>140.0</ele><time>2026-04-30T06:21:03.003Z</time></trkpt><trkpt lat="40.31295221356833" lon="9.630827786487792"><ele>140.0</ele><time>2026-04-30T06:21:04.003Z</time></trkpt><trkpt lat="40.31305392408177" lon="9.630741100933514"><ele>140.0</ele><time>2026-04-30T06:21:05.003Z</time></trkpt><trkpt lat="40.3131400252697" lon="9.630646981435952"><ele>139.8</ele><time>2026-04-30T06:21:06.003Z</time></trkpt><trkpt lat="40.3132280444436" lon="9.630578071637848"><ele>139.6</ele><time>2026-04-30T06:21:07.003Z</time></trkpt><trkpt lat="40.313320653885015" lon="9.630544875815191"><ele>139.4</ele><time>2026-04-30T06:21:08.003Z</time></trkpt><trkpt lat="40.31341734651594" lon="9.630516384144306"><ele>139.2</ele><time>2026-04-30T06:21:09.003Z</time></trkpt><trkpt lat="40.313520775129746" lon="9.630500230181848"><ele>139.0</ele><time>2026-04-30T06:21:10.003Z</time></trkpt><trkpt lat="40.313604870848756" lon="9.630519812887298"><ele>139.0</ele><time>2026-04-30T06:21:11.003Z</time></trkpt><trkpt lat="40.31368012184877" lon="9.630536446766113"><ele>139.0</ele><time>2026-04-30T06:21:12.003Z</time></trkpt><trkpt lat="40.31373297575454" lon="9.630616162360347"><ele>139.0</ele><time>2026-04-30T06:21:13.003Z</time></trkpt><trkpt lat="40.313808021170054" lon="9.630696387157467"><ele>139.0</ele><time>2026-04-30T06:21:15.003Z</time></trkpt><trkpt lat="40.31385489752938" lon="9.630767280656222"><ele>139.0</ele><time>2026-04-30T06:21:18.003Z</time></trkpt><trkpt lat="40.313938057269255" lon="9.630813594616942"><ele>139.0</ele><time>2026-04-30T06:22:21.003Z</time></trkpt><trkpt lat="40.314056683184226" lon="9.630843704485727"><ele>140.66666666666669</ele><time>2026-04-30T06:22:23.003Z</time></trkpt><trkpt lat="40.31413095816627" lon="9.630827550771537"><ele>142.33333333333334</ele><time>2026-04-30T06:22:24.003Z</time></trkpt><trkpt lat="40.314208861188554" lon="9.630797380983518"><ele>144.0</ele><time>2026-04-30T06:22:25.003Z</time></trkpt><trkpt lat="40.31428724042004" lon="9.630793126698535"><ele>145.66666666666666</ele><time>2026-04-30T06:22:26.003Z</time></trkpt><trkpt lat="40.31435874029483" lon="9.630778996912795"><ele>147.33333333333331</ele><time>2026-04-30T06:22:27.003Z</time></trkpt><trkpt lat="40.314424813038535" lon="9.630784928604424"><ele>149.0</ele><time>2026-04-30T06:22:28.003Z</time></trkpt><trkpt lat="40.314552510316865" lon="9.630815139207147"><ele>149.0</ele><time>2026-04-30T06:22:30.003Z</time></trkpt><trkpt lat="40.31461739582993" lon="9.63087345497453"><ele>149.0</ele><time>2026-04-30T06:22:31.003Z</time></trkpt><trkpt lat="40.31468718524324" lon="9.630932373057323"><ele>149.0</ele><time>2026-04-30T06:22:32.003Z</time></trkpt><trkpt lat="40.314741737547095" lon="9.631004796572771"><ele>149.0</ele><time>2026-04-30T06:22:33.003Z</time></trkpt><trkpt lat="40.31477800696187" lon="9.631109675080927"><ele>149.0</ele><time>2026-04-30T06:22:34.003Z</time></trkpt><trkpt lat="40.314792266514495" lon="9.631212043441524"><ele>149.0</ele><time>2026-04-30T06:22:35.003Z</time></trkpt><trkpt lat="40.314802944135394" lon="9.63133130764098"><ele>148.8</ele><time>2026-04-30T06:22:36.003Z</time></trkpt><trkpt lat="40.31481966672302" lon="9.631456256524537"><ele>148.60000000000002</ele><time>2026-04-30T06:22:37.003Z</time></trkpt><trkpt lat="40.31485036031564" lon="9.631586064368204"><ele>148.4</ele><time>2026-04-30T06:22:38.003Z</time></trkpt><trkpt lat="40.314897300787386" lon="9.631722830646536"><ele>148.20000000000002</ele><time>2026-04-30T06:22:39.003Z</time></trkpt><trkpt lat="40.314948323867576" lon="9.631860124596821"><ele>148.0</ele><time>2026-04-30T06:22:40.003Z</time></trkpt><trkpt lat="40.31500571473442" lon="9.632011732055295"><ele>148.0</ele><time>2026-04-30T06:22:41.003Z</time></trkpt><trkpt lat="40.315044892946965" lon="9.63215986459607"><ele>148.0</ele><time>2026-04-30T06:22:42.003Z</time></trkpt><trkpt lat="40.315109114567996" lon="9.632296373537507"><ele>148.0</ele><time>2026-04-30T06:22:43.003Z</time></trkpt><trkpt lat="40.315180656919686" lon="9.632434599368262"><ele>148.0</ele><time>2026-04-30T06:22:44.003Z</time></trkpt><trkpt lat="40.31524428094687" lon="9.632578339240434"><ele>148.0</ele><time>2026-04-30T06:22:45.003Z</time></trkpt><trkpt lat="40.31529693145201" lon="9.632722038492474"><ele>148.0</ele><time>2026-04-30T06:22:46.003Z</time></trkpt><trkpt lat="40.31534709165367" lon="9.63286879045849"><ele>148.0</ele><time>2026-04-30T06:22:47.003Z</time></trkpt><trkpt lat="40.3153958740937" lon="9.633013928160933"><ele>148.0</ele><time>2026-04-30T06:22:48.003Z</time></trkpt><trkpt lat="40.3154525719966" lon="9.633148685806415"><ele>147.0</ele><time>2026-04-30T06:22:49.003Z</time></trkpt><trkpt lat="40.3155260071202" lon="9.633273350300191"><ele>146.0</ele><time>2026-04-30T06:22:50.003Z</time></trkpt><trkpt lat="40.31560852526941" lon="9.633384229246689"><ele>145.0</ele><time>2026-04-30T06:22:51.003Z</time></trkpt><trkpt lat="40.31570781887273" lon="9.633479040606542"><ele>144.0</ele><time>2026-04-30T06:22:52.003Z</time></trkpt><trkpt lat="40.315804385605816" lon="9.633574468195306"><ele>147.0</ele><time>2026-04-30T06:22:53.003Z</time></trkpt><trkpt lat="40.315901958462284" lon="9.6336659629672"><ele>150.0</ele><time>2026-04-30T06:22:54.003Z</time></trkpt><trkpt lat="40.316006753430216" lon="9.633734408190694"><ele>153.0</ele><time>2026-04-30T06:22:55.003Z</time></trkpt><trkpt lat="40.3161312115833" lon="9.633794449792596"><ele>156.0</ele><time>2026-04-30T06:22:56.003Z</time></trkpt><trkpt lat="40.31627306521884" lon="9.633838306717983"><ele>157.75</ele><time>2026-04-30T06:22:57.003Z</time></trkpt><trkpt lat="40.31641440365573" lon="9.633880867235344"><ele>159.5</ele><time>2026-04-30T06:22:58.003Z</time></trkpt><trkpt lat="40.31654744619559" lon="9.633912501818426"><ele>161.25</ele><time>2026-04-30T06:22:59.003Z</time></trkpt><trkpt lat="40.31667431503599" lon="9.633918020172082"><ele>163.0</ele><time>2026-04-30T06:23:00.003Z</time></trkpt><trkpt lat="40.316832765276615" lon="9.633913987794557"><ele>163.0</ele><time>2026-04-30T06:23:01.003Z</time></trkpt><trkpt lat="40.316991688761945" lon="9.633905165347771"><ele>163.0</ele><time>2026-04-30T06:23:02.003Z</time></trkpt><trkpt lat="40.31716105595253" lon="9.633894486649387"><ele>163.0</ele><time>2026-04-30T06:23:03.003Z</time></trkpt><trkpt lat="40.317324903298804" lon="9.633881535860267"><ele>162.0</ele><time>2026-04-30T06:23:04.003Z</time></trkpt><trkpt lat="40.3174852354159" lon="9.633866540145958"><ele>161.0</ele><time>2026-04-30T06:23:05.003Z</time></trkpt><trkpt lat="40.317634869707085" lon="9.633850663046989"><ele>160.0</ele><time>2026-04-30T06:23:06.003Z</time></trkpt><trkpt lat="40.31779416194285" lon="9.633849990711779"><ele>160.0</ele><time>2026-04-30T06:23:07.003Z</time></trkpt><trkpt lat="40.317949216117796" lon="9.633841486852253"><ele>160.0</ele><time>2026-04-30T06:23:08.003Z</time></trkpt><trkpt lat="40.318079510607156" lon="9.633828544194614"><ele>160.0</ele><time>2026-04-30T06:23:09.003Z</time></trkpt><trkpt lat="40.31820813845391" lon="9.633811595082008"><ele>160.0</ele><time>2026-04-30T06:23:10.003Z</time></trkpt><trkpt lat="40.318320379976136" lon="9.633775041738257"><ele>160.25</ele><time>2026-04-30T06:23:11.003Z</time></trkpt><trkpt lat="40.3184344473102" lon="9.63374782651885"><ele>160.5</ele><time>2026-04-30T06:23:12.003Z</time></trkpt><trkpt lat="40.318528953492056" lon="9.633666628878434"><ele>160.75</ele><time>2026-04-30T06:23:13.003Z</time></trkpt><trkpt lat="40.31862286532272" lon="9.633590969100135"><ele>161.0</ele><time>2026-04-30T06:23:14.003Z</time></trkpt><trkpt lat="40.318722905944774" lon="9.633493770533521"><ele>161.0</ele><time>2026-04-30T06:23:15.003Z</time></trkpt><trkpt lat="40.31882708283075" lon="9.633378886678127"><ele>161.0</ele><time>2026-04-30T06:23:16.003Z</time></trkpt><trkpt lat="40.31893705409991" lon="9.633250754472536"><ele>161.0</ele><time>2026-04-30T06:23:17.003Z</time></trkpt><trkpt lat="40.319055684804695" lon="9.633107959921366"><ele>161.0</ele><time>2026-04-30T06:23:18.003Z</time></trkpt><trkpt lat="40.31918442642618" lon="9.632959332219233"><ele>159.0</ele><time>2026-04-30T06:23:19.003Z</time></trkpt><trkpt lat="40.319319804868464" lon="9.63280656016167"><ele>157.0</ele><time>2026-04-30T06:23:20.003Z</time></trkpt><trkpt lat="40.31945554804099" lon="9.63265376709819"><ele>155.0</ele><time>2026-04-30T06:23:21.003Z</time></trkpt><trkpt lat="40.31958630146031" lon="9.63250839393203"><ele>155.0</ele><time>2026-04-30T06:23:22.003Z</time></trkpt><trkpt lat="40.319700807340176" lon="9.63238564356224"><ele>155.0</ele><time>2026-04-30T06:23:23.003Z</time></trkpt><trkpt lat="40.3197992453244" lon="9.632275043547398"><ele>155.0</ele><time>2026-04-30T06:23:24.003Z</time></trkpt><trkpt lat="40.31987743278784" lon="9.632183843458623"><ele>155.0</ele><time>2026-04-30T06:23:25.003Z</time></trkpt><trkpt lat="40.31993880430676" lon="9.632086089809102"><ele>154.8</ele><time>2026-04-30T06:23:26.003Z</time></trkpt><trkpt lat="40.31997926191827" lon="9.631970644782982"><ele>154.6</ele><time>2026-04-30T06:23:27.003Z</time></trkpt><trkpt lat="40.32000519055709" lon="9.631834994276673"><ele>154.4</ele><time>2026-04-30T06:23:28.003Z</time></trkpt><trkpt lat="40.320011826317234" lon="9.631692893486592"><ele>154.2</ele><time>2026-04-30T06:23:29.003Z</time></trkpt><trkpt lat="40.320035917756044" lon="9.631542997266555"><ele>154.0</ele><time>2026-04-30T06:23:30.003Z</time></trkpt><trkpt lat="40.32006241451274" lon="9.631425878226832"><ele>154.0</ele><time>2026-04-30T06:23:31.003Z</time></trkpt><trkpt lat="40.3201026317938" lon="9.631328767239934"><ele>154.0</ele><time>2026-04-30T06:23:32.003Z</time></trkpt><trkpt lat="40.32018948375404" lon="9.631267629056515"><ele>154.0</ele><time>2026-04-30T06:23:33.003Z</time></trkpt><trkpt lat="40.32027950456785" lon="9.631181493745352"><ele>154.0</ele><time>2026-04-30T06:23:34.003Z</time></trkpt><trkpt lat="40.32038739700767" lon="9.63107159693195"><ele>154.0</ele><time>2026-04-30T06:23:35.003Z</time></trkpt><trkpt lat="40.32049178536809" lon="9.63094468354331"><ele>154.75</ele><time>2026-04-30T06:23:36.003Z</time></trkpt><trkpt lat="40.320586785333525" lon="9.630827122521682"><ele>155.5</ele><time>2026-04-30T06:23:37.003Z</time></trkpt><trkpt lat="40.32068447262011" lon="9.630713863006482"><ele>156.25</ele><time>2026-04-30T06:23:38.003Z</time></trkpt><trkpt lat="40.32078377730565" lon="9.630618776774783"><ele>157.0</ele><time>2026-04-30T06:23:39.003Z</time></trkpt><trkpt lat="40.32090357398991" lon="9.630589385024056"><ele>157.0</ele><time>2026-04-30T06:23:40.003Z</time></trkpt><trkpt lat="40.32104029514583" lon="9.630535741676702"><ele>157.0</ele><time>2026-04-30T06:23:41.003Z</time></trkpt><trkpt lat="40.32118745644522" lon="9.630478301092221"><ele>157.0</ele><time>2026-04-30T06:23:42.003Z</time></trkpt><trkpt lat="40.32128904579752" lon="9.63043335152151"><ele>157.0</ele><time>2026-04-30T06:23:43.003Z</time></trkpt><trkpt lat="40.32137378358688" lon="9.63039119749131"><ele>157.0</ele><time>2026-04-30T06:23:44.003Z</time></trkpt><trkpt lat="40.32145507755803" lon="9.630323743710845"><ele>157.0</ele><time>2026-04-30T06:23:45.003Z</time></trkpt><trkpt lat="40.321515239581736" lon="9.630230327890887"><ele>157.0</ele><time>2026-04-30T06:23:46.003Z</time></trkpt><trkpt lat="40.32155042963838" lon="9.63012227516223"><ele>157.0</ele><time>2026-04-30T06:23:47.003Z</time></trkpt><trkpt lat="40.32159794465974" lon="9.630004174312644"><ele>157.0</ele><time>2026-04-30T06:23:48.003Z</time></trkpt><trkpt lat="40.321651765486834" lon="9.629864443223267"><ele>157.0</ele><time>2026-04-30T06:23:49.003Z</time></trkpt><trkpt lat="40.32170982326912" lon="9.629719346917199"><ele>157.0</ele><time>2026-04-30T06:23:50.003Z</time></trkpt><trkpt lat="40.3217645107891" lon="9.629570819498458"><ele>157.0</ele><time>2026-04-30T06:23:51.003Z</time></trkpt><trkpt lat="40.32180983146264" lon="9.629438096125972"><ele>157.0</ele><time>2026-04-30T06:23:52.003Z</time></trkpt><trkpt lat="40.32185314963804" lon="9.629322803976525"><ele>157.8</ele><time>2026-04-30T06:23:53.003Z</time></trkpt><trkpt lat="40.32183830363839" lon="9.629203015539437"><ele>158.6</ele><time>2026-04-30T06:23:54.003Z</time></trkpt><trkpt lat="40.321830287676676" lon="9.62907332592462"><ele>159.4</ele><time>2026-04-30T06:23:55.003Z</time></trkpt><trkpt lat="40.32180428623172" lon="9.628929805040977"><ele>160.20000000000002</ele><time>2026-04-30T06:23:56.003Z</time></trkpt><trkpt lat="40.321777561638385" lon="9.628784350090784"><ele>161.0</ele><time>2026-04-30T06:23:57.003Z</time></trkpt><trkpt lat="40.32174950081021" lon="9.628627315469517"><ele>161.25</ele><time>2026-04-30T06:23:58.003Z</time></trkpt><trkpt lat="40.321732257499505" lon="9.628465790867146"><ele>161.5</ele><time>2026-04-30T06:23:59.003Z</time></trkpt><trkpt lat="40.321721221841045" lon="9.628306965674522"><ele>161.75</ele><time>2026-04-30T06:24:00.003Z</time></trkpt><trkpt lat="40.32170725672824" lon="9.628125951705961"><ele>162.0</ele><time>2026-04-30T06:24:01.004Z</time></trkpt><trkpt lat="40.32167966912257" lon="9.627565231730713"><ele>162.33333333333334</ele><time>2026-04-30T06:24:02.004Z</time></trkpt><trkpt lat="40.32165834261414" lon="9.627315862890239"><ele>162.66666666666669</ele><time>2026-04-30T06:24:03.004Z</time></trkpt><trkpt lat="40.32163794810649" lon="9.627071985141509"><ele>163.0</ele><time>2026-04-30T06:24:04.004Z</time></trkpt><trkpt lat="40.32161801004903" lon="9.62682863491089"><ele>164.0</ele><time>2026-04-30T06:24:05.004Z</time></trkpt><trkpt lat="40.32159509421921" lon="9.626585139690265"><ele>165.0</ele><time>2026-04-30T06:24:06.004Z</time></trkpt><trkpt lat="40.32157681029039" lon="9.626340357760375"><ele>166.0</ele><time>2026-04-30T06:24:07.004Z</time></trkpt><trkpt lat="40.32155530666858" lon="9.626095806012392"><ele>166.33333333333334</ele><time>2026-04-30T06:24:08.004Z</time></trkpt><trkpt lat="40.3215338921134" lon="9.62584361140457"><ele>166.66666666666666</ele><time>2026-04-30T06:24:09.004Z</time></trkpt><trkpt lat="40.32151374472134" lon="9.625595437159749"><ele>167.0</ele><time>2026-04-30T06:24:10.004Z</time></trkpt><trkpt lat="40.32149595619164" lon="9.625341907741996"><ele>167.33333333333331</ele><time>2026-04-30T06:24:11.003Z</time></trkpt><trkpt lat="40.32147501132863" lon="9.625089232228746"><ele>167.66666666666666</ele><time>2026-04-30T06:24:12.003Z</time></trkpt><trkpt lat="40.32145759548633" lon="9.624827328290328"><ele>168.0</ele><time>2026-04-30T06:24:13.003Z</time></trkpt><trkpt lat="40.321438061567605" lon="9.624588601379951"><ele>167.33333333333334</ele><time>2026-04-30T06:24:14.003Z</time></trkpt><trkpt lat="40.321415353249186" lon="9.624381465119269"><ele>166.66666666666669</ele><time>2026-04-30T06:24:15.003Z</time></trkpt><trkpt lat="40.32138021053934" lon="9.624190060726354"><ele>166.0</ele><time>2026-04-30T06:24:16.003Z</time></trkpt><trkpt lat="40.32133058925724" lon="9.623996870738193"><ele>168.66666666666669</ele><time>2026-04-30T06:24:17.003Z</time></trkpt><trkpt lat="40.3212614042313" lon="9.623800068797053"><ele>171.33333333333334</ele><time>2026-04-30T06:24:18.003Z</time></trkpt><trkpt lat="40.321201322382656" lon="9.62360159029569"><ele>174.0</ele><time>2026-04-30T06:24:19.003Z</time></trkpt><trkpt lat="40.321163183051674" lon="9.623420764956803"><ele>174.0</ele><time>2026-04-30T06:24:20.003Z</time></trkpt><trkpt lat="40.32113568603599" lon="9.623252683840935"><ele>174.0</ele><time>2026-04-30T06:24:21.003Z</time></trkpt><trkpt lat="40.32112178133253" lon="9.623119765324116"><ele>174.0</ele><time>2026-04-30T06:24:22.003Z</time></trkpt><trkpt lat="40.3211455276005" lon="9.623024596853476"><ele>174.0</ele><time>2026-04-30T06:24:23.003Z</time></trkpt><trkpt lat="40.32120637506753" lon="9.622923804382657"><ele>174.0</ele><time>2026-04-30T06:24:25.003Z</time></trkpt><trkpt lat="40.32127656429598" lon="9.622857841650935"><ele>173.2</ele><time>2026-04-30T06:24:26.003Z</time></trkpt><trkpt lat="40.32137997066811" lon="9.622813841034894"><ele>172.39999999999998</ele><time>2026-04-30T06:24:27.003Z</time></trkpt><trkpt lat="40.32147566791574" lon="9.622744102069033"><ele>171.6</ele><time>2026-04-30T06:24:28.003Z</time></trkpt><trkpt lat="40.32157326183784" lon="9.62266193919193"><ele>170.8</ele><time>2026-04-30T06:24:29.003Z</time></trkpt><trkpt lat="40.321569601296616" lon="9.622519856589108"><ele>170.0</ele><time>2026-04-30T06:24:31.003Z</time></trkpt><trkpt lat="40.32156393271556" lon="9.622418938172222"><ele>170.0</ele><time>2026-04-30T06:24:32.003Z</time></trkpt><trkpt lat="40.321544837617964" lon="9.622273604011708"><ele>170.0</ele><time>2026-04-30T06:24:33.003Z</time></trkpt><trkpt lat="40.32153073020752" lon="9.622113636168633"><ele>170.0</ele><time>2026-04-30T06:24:34.003Z</time></trkpt><trkpt lat="40.3215198775371" lon="9.621934508358887"><ele>170.0</ele><time>2026-04-30T06:24:35.003Z</time></trkpt><trkpt lat="40.32151488750466" lon="9.621745146133943"><ele>170.5</ele><time>2026-04-30T06:24:36.003Z</time></trkpt><trkpt lat="40.32151663600608" lon="9.62156457877969"><ele>171.0</ele><time>2026-04-30T06:24:37.003Z</time></trkpt><trkpt lat="40.32151438111662" lon="9.621390478743953"><ele>171.5</ele><time>2026-04-30T06:24:38.003Z</time></trkpt><trkpt lat="40.321499309501945" lon="9.621210512265474"><ele>172.0</ele><time>2026-04-30T06:24:39.003Z</time></trkpt><trkpt lat="40.3214704226298" lon="9.621034207656187"><ele>172.0</ele><time>2026-04-30T06:24:40.003Z</time></trkpt><trkpt lat="40.32143257356974" lon="9.620853731591277"><ele>172.0</ele><time>2026-04-30T06:24:41.003Z</time></trkpt><trkpt lat="40.32139065227356" lon="9.620669591660402"><ele>172.0</ele><time>2026-04-30T06:24:42.003Z</time></trkpt><trkpt lat="40.32133571710769" lon="9.620494750556398"><ele>172.0</ele><time>2026-04-30T06:24:43.003Z</time></trkpt><trkpt lat="40.32127583876839" lon="9.620337352086489"><ele>172.6</ele><time>2026-04-30T06:24:44.003Z</time></trkpt><trkpt lat="40.321216129547004" lon="9.620208256588787"><ele>173.2</ele><time>2026-04-30T06:24:45.003Z</time></trkpt><trkpt lat="40.32118426356897" lon="9.62008503922352"><ele>173.8</ele><time>2026-04-30T06:24:46.003Z</time></trkpt><trkpt lat="40.32116980470797" lon="9.61996932532151"><ele>174.4</ele><time>2026-04-30T06:24:47.003Z</time></trkpt><trkpt lat="40.32116934592531" lon="9.619806544647211"><ele>175.0</ele><time>2026-04-30T06:24:48.003Z</time></trkpt><trkpt lat="40.321180057020705" lon="9.619639956878945"><ele>173.6</ele><time>2026-04-30T06:24:49.003Z</time></trkpt><trkpt lat="40.32119170184761" lon="9.619478390214383"><ele>172.2</ele><time>2026-04-30T06:24:50.003Z</time></trkpt><trkpt lat="40.32120522827564" lon="9.619328185412986"><ele>170.8</ele><time>2026-04-30T06:24:51.003Z</time></trkpt><trkpt lat="40.32121899984447" lon="9.61918916215651"><ele>169.4</ele><time>2026-04-30T06:24:52.003Z</time></trkpt><trkpt lat="40.32124496719573" lon="9.61906890871098"><ele>168.0</ele><time>2026-04-30T06:24:53.003Z</time></trkpt><trkpt lat="40.321275200974405" lon="9.618965643340752"><ele>168.0</ele><time>2026-04-30T06:24:54.003Z</time></trkpt><trkpt lat="40.32128929032932" lon="9.618870193709617"><ele>168.0</ele><time>2026-04-30T06:24:55.003Z</time></trkpt><trkpt lat="40.32131289119399" lon="9.618748126091077"><ele>168.0</ele><time>2026-04-30T06:24:57.003Z</time></trkpt><trkpt lat="40.32139454306126" lon="9.618824241637714"><ele>168.0</ele><time>2026-04-30T06:25:00.003Z</time></trkpt><trkpt lat="40.321464233786735" lon="9.618881725202653"><ele>168.0</ele><time>2026-04-30T06:25:01.003Z</time></trkpt><trkpt lat="40.32153258103646" lon="9.618926839049927"><ele>168.0</ele><time>2026-04-30T06:25:02.003Z</time></trkpt><trkpt lat="40.32161745662828" lon="9.618950116346126"><ele>167.60000000000002</ele><time>2026-04-30T06:25:03.003Z</time></trkpt><trkpt lat="40.321703743427996" lon="9.618996717521156"><ele>167.20000000000002</ele><time>2026-04-30T06:25:04.003Z</time></trkpt><trkpt lat="40.32180013210646" lon="9.619044310556275"><ele>166.8</ele><time>2026-04-30T06:25:05.003Z</time></trkpt><trkpt lat="40.321899846192714" lon="9.619116674337178"><ele>166.4</ele><time>2026-04-30T06:25:06.003Z</time></trkpt><trkpt lat="40.3220077629331" lon="9.619173264309277"><ele>166.0</ele><time>2026-04-30T06:25:07.003Z</time></trkpt><trkpt lat="40.32212163306105" lon="9.61924299020831"><ele>166.25</ele><time>2026-04-30T06:25:08.003Z</time></trkpt><trkpt lat="40.32224148372621" lon="9.61932324036145"><ele>166.5</ele><time>2026-04-30T06:25:09.003Z</time></trkpt><trkpt lat="40.3223632432018" lon="9.619409384444959"><ele>166.75</ele><time>2026-04-30T06:25:10.003Z</time></trkpt><trkpt lat="40.32247871398205" lon="9.619490161936627"><ele>167.0</ele><time>2026-04-30T06:25:11.003Z</time></trkpt><trkpt lat="40.322589528895776" lon="9.61956815591324"><ele>166.0</ele><time>2026-04-30T06:25:12.003Z</time></trkpt><trkpt lat="40.322691185057266" lon="9.619646810346387"><ele>165.0</ele><time>2026-04-30T06:25:13.003Z</time></trkpt><trkpt lat="40.322791208804176" lon="9.619724153721064"><ele>164.0</ele><time>2026-04-30T06:25:14.004Z</time></trkpt><trkpt lat="40.3228705663944" lon="9.61981593139172"><ele>163.0</ele><time>2026-04-30T06:25:15.004Z</time></trkpt><trkpt lat="40.322963562630434" lon="9.619898916129225"><ele>163.0</ele><time>2026-04-30T06:25:16.004Z</time></trkpt><trkpt lat="40.32305295962761" lon="9.619990869899143"><ele>163.0</ele><time>2026-04-30T06:25:17.004Z</time></trkpt><trkpt lat="40.323130348307494" lon="9.620098157496034"><ele>163.0</ele><time>2026-04-30T06:25:18.004Z</time></trkpt><trkpt lat="40.32320708995958" lon="9.620212750255146"><ele>163.0</ele><time>2026-04-30T06:25:19.004Z</time></trkpt><trkpt lat="40.3232952000626" lon="9.620320926733156"><ele>162.75</ele><time>2026-04-30T06:25:20.004Z</time></trkpt><trkpt lat="40.32339217113629" lon="9.62041771911396"><ele>162.5</ele><time>2026-04-30T06:25:21.004Z</time></trkpt><trkpt lat="40.32349789146862" lon="9.620506780918287"><ele>162.25</ele><time>2026-04-30T06:25:22.004Z</time></trkpt><trkpt lat="40.323604368362965" lon="9.620594927039322"><ele>162.0</ele><time>2026-04-30T06:25:23.004Z</time></trkpt><trkpt lat="40.32371274752718" lon="9.62067773678504"><ele>162.0</ele><time>2026-04-30T06:25:24.004Z</time></trkpt><trkpt lat="40.323821211168806" lon="9.620759109223815"><ele>162.0</ele><time>2026-04-30T06:25:25.004Z</time></trkpt><trkpt lat="40.323939818928544" lon="9.620830373114288"><ele>162.0</ele><time>2026-04-30T06:25:26.004Z</time></trkpt><trkpt lat="40.32406067694587" lon="9.620898632243737"><ele>162.0</ele><time>2026-04-30T06:25:27.004Z</time></trkpt><trkpt lat="40.324185038892146" lon="9.620960848300653"><ele>161.75</ele><time>2026-04-30T06:25:28.004Z</time></trkpt><trkpt lat="40.324300689032526" lon="9.621010977319404"><ele>161.5</ele><time>2026-04-30T06:25:29.004Z</time></trkpt><trkpt lat="40.32440718609523" lon="9.621061238669961"><ele>161.25</ele><time>2026-04-30T06:25:30.004Z</time></trkpt><trkpt lat="40.32450539379844" lon="9.621116295445436"><ele>161.0</ele><time>2026-04-30T06:25:31.004Z</time></trkpt><trkpt lat="40.32460544474112" lon="9.621181163104078"><ele>160.25</ele><time>2026-04-30T06:25:32.004Z</time></trkpt><trkpt lat="40.3246960027417" lon="9.621268305518658"><ele>159.5</ele><time>2026-04-30T06:25:33.004Z</time></trkpt><trkpt lat="40.32477515652765" lon="9.621377348217493"><ele>158.75</ele><time>2026-04-30T06:25:34.004Z</time></trkpt><trkpt lat="40.32484414739294" lon="9.621500797556545"><ele>158.0</ele><time>2026-04-30T06:25:35.004Z</time></trkpt><trkpt lat="40.32488528066332" lon="9.621649562811573"><ele>157.4</ele><time>2026-04-30T06:25:36.004Z</time></trkpt><trkpt lat="40.324930329618816" lon="9.621785010286846"><ele>156.8</ele><time>2026-04-30T06:25:37.004Z</time></trkpt><trkpt lat="40.32499963026054" lon="9.621873495868291"><ele>156.2</ele><time>2026-04-30T06:25:38.004Z</time></trkpt><trkpt lat="40.325059046759065" lon="9.621958605879968"><ele>155.6</ele><time>2026-04-30T06:25:39.004Z</time></trkpt><trkpt lat="40.32513642399059" lon="9.622028433254913"><ele>155.0</ele><time>2026-04-30T06:25:40.004Z</time></trkpt><trkpt lat="40.32523994897854" lon="9.622113758149231"><ele>154.5</ele><time>2026-04-30T06:25:41.004Z</time></trkpt><trkpt lat="40.32534480075775" lon="9.622200979073197"><ele>154.0</ele><time>2026-04-30T06:25:42.004Z</time></trkpt><trkpt lat="40.32545219894635" lon="9.62227415917973"><ele>153.5</ele><time>2026-04-30T06:25:43.004Z</time></trkpt><trkpt lat="40.32555283665123" lon="9.622347940730197"><ele>153.0</ele><time>2026-04-30T06:25:44.004Z</time></trkpt><trkpt lat="40.32563067556751" lon="9.622413121996365"><ele>153.0</ele><time>2026-04-30T06:25:45.004Z</time></trkpt><trkpt lat="40.32568360556993" lon="9.62249100606898"><ele>153.0</ele><time>2026-04-30T06:25:46.004Z</time></trkpt><trkpt lat="40.32571056072741" lon="9.622609742835092"><ele>153.0</ele><time>2026-04-30T06:25:47.004Z</time></trkpt><trkpt lat="40.32574379798689" lon="9.622720198389993"><ele>153.0</ele><time>2026-04-30T06:25:48.004Z</time></trkpt><trkpt lat="40.32578206427839" lon="9.622846045047075"><ele>153.0</ele><time>2026-04-30T06:25:49.004Z</time></trkpt><trkpt lat="40.32582298220095" lon="9.622951607168332"><ele>152.4</ele><time>2026-04-30T06:25:50.004Z</time></trkpt><trkpt lat="40.325904073759155" lon="9.623010076289388"><ele>151.8</ele><time>2026-04-30T06:25:51.004Z</time></trkpt><trkpt lat="40.325977833794916" lon="9.623081235476743"><ele>151.2</ele><time>2026-04-30T06:25:52.004Z</time></trkpt><trkpt lat="40.32605986048313" lon="9.623162045625719"><ele>150.6</ele><time>2026-04-30T06:25:53.004Z</time></trkpt><trkpt lat="40.32614475441211" lon="9.623241279109566"><ele>150.0</ele><time>2026-04-30T06:25:54.004Z</time></trkpt><trkpt lat="40.326228124403045" lon="9.623313106024192"><ele>150.0</ele><time>2026-04-30T06:25:55.004Z</time></trkpt><trkpt lat="40.326321722569126" lon="9.623358815351741"><ele>150.0</ele><time>2026-04-30T06:25:56.004Z</time></trkpt><trkpt lat="40.326416705207954" lon="9.623370909501583"><ele>150.0</ele><time>2026-04-30T06:25:57.004Z</time></trkpt><trkpt lat="40.326514644692324" lon="9.623369297213117"><ele>150.0</ele><time>2026-04-30T06:25:58.004Z</time></trkpt><trkpt lat="40.32662229055372" lon="9.623364877368992"><ele>150.0</ele><time>2026-04-30T06:25:59.004Z</time></trkpt><trkpt lat="40.32673116746564" lon="9.623370527195544"><ele>151.5</ele><time>2026-04-30T06:26:00.004Z</time></trkpt><trkpt lat="40.32683567515353" lon="9.623429847629925"><ele>153.0</ele><time>2026-04-30T06:26:01.004Z</time></trkpt><trkpt lat="40.3269544182955" lon="9.623471567576054"><ele>154.5</ele><time>2026-04-30T06:26:02.004Z</time></trkpt><trkpt lat="40.32706669321434" lon="9.623518735789125"><ele>156.0</ele><time>2026-04-30T06:26:03.004Z</time></trkpt><trkpt lat="40.327185450245544" lon="9.623556962438755"><ele>157.6</ele><time>2026-04-30T06:26:04.004Z</time></trkpt><trkpt lat="40.327283348786494" lon="9.623651548064881"><ele>159.2</ele><time>2026-04-30T06:26:05.004Z</time></trkpt><trkpt lat="40.32737178416688" lon="9.623730658224291"><ele>160.79999999999998</ele><time>2026-04-30T06:26:06.004Z</time></trkpt><trkpt lat="40.327440697712994" lon="9.623800324426638"><ele>162.39999999999998</ele><time>2026-04-30T06:26:07.004Z</time></trkpt><trkpt lat="40.32748461788056" lon="9.62388133359419"><ele>164.0</ele><time>2026-04-30T06:26:08.004Z</time></trkpt><trkpt lat="40.32749096830882" lon="9.623970223790916"><ele>164.0</ele><time>2026-04-30T06:26:09.004Z</time></trkpt><trkpt lat="40.327524557502166" lon="9.624058341630553"><ele>164.0</ele><time>2026-04-30T06:26:10.004Z</time></trkpt><trkpt lat="40.32757213702263" lon="9.624154875491108"><ele>164.0</ele><time>2026-04-30T06:26:11.004Z</time></trkpt><trkpt lat="40.32766164441204" lon="9.624228742907418"><ele>164.0</ele><time>2026-04-30T06:26:12.004Z</time></trkpt><trkpt lat="40.32774151226309" lon="9.624319697677766"><ele>164.0</ele><time>2026-04-30T06:26:13.004Z</time></trkpt><trkpt lat="40.32782610353862" lon="9.624409230808535"><ele>164.39999999999998</ele><time>2026-04-30T06:26:14.004Z</time></trkpt><trkpt lat="40.32790449050571" lon="9.624488480579629"><ele>164.8</ele><time>2026-04-30T06:26:15.004Z</time></trkpt><trkpt lat="40.32798340648787" lon="9.624542821046752"><ele>165.2</ele><time>2026-04-30T06:26:16.004Z</time></trkpt><trkpt lat="40.32807064275275" lon="9.624559565773767"><ele>165.60000000000002</ele><time>2026-04-30T06:26:17.003Z</time></trkpt><trkpt lat="40.32815386160066" lon="9.624576620380472"><ele>166.0</ele><time>2026-04-30T06:26:18.003Z</time></trkpt><trkpt lat="40.328236704564986" lon="9.624652490900415"><ele>166.66666666666669</ele><time>2026-04-30T06:26:19.003Z</time></trkpt><trkpt lat="40.32832682417303" lon="9.624700549424453"><ele>167.33333333333334</ele><time>2026-04-30T06:26:20.003Z</time></trkpt><trkpt lat="40.328399924253695" lon="9.624762319636707"><ele>168.0</ele><time>2026-04-30T06:26:21.003Z</time></trkpt><trkpt lat="40.32845886801027" lon="9.624805749453659"><ele>168.66666666666666</ele><time>2026-04-30T06:26:22.003Z</time></trkpt><trkpt lat="40.3285716290228" lon="9.624813842646343"><ele>169.33333333333331</ele><time>2026-04-30T06:26:24.003Z</time></trkpt><trkpt lat="40.32864825833465" lon="9.624774827875267"><ele>170.0</ele><time>2026-04-30T06:26:25.003Z</time></trkpt><trkpt lat="40.328741589868145" lon="9.624740043449"><ele>170.0</ele><time>2026-04-30T06:26:26.003Z</time></trkpt><trkpt lat="40.32884626392173" lon="9.624708540729648"><ele>170.0</ele><time>2026-04-30T06:26:27.003Z</time></trkpt><trkpt lat="40.32896018207029" lon="9.624684522269963"><ele>170.0</ele><time>2026-04-30T06:26:28.003Z</time></trkpt><trkpt lat="40.32907287154884" lon="9.624660047972807"><ele>170.0</ele><time>2026-04-30T06:26:29.003Z</time></trkpt><trkpt lat="40.32918960563837" lon="9.624637502574279"><ele>170.75</ele><time>2026-04-30T06:26:30.002Z</time></trkpt><trkpt lat="40.32930229235244" lon="9.624604925127787"><ele>171.5</ele><time>2026-04-30T06:26:31.002Z</time></trkpt><trkpt lat="40.32942033870302" lon="9.62457761567152"><ele>172.25</ele><time>2026-04-30T06:26:32.002Z</time></trkpt><trkpt lat="40.32953932263386" lon="9.624544280239345"><ele>173.0</ele><time>2026-04-30T06:26:33.002Z</time></trkpt><trkpt lat="40.329657126898915" lon="9.624510942094037"><ele>173.8</ele><time>2026-04-30T06:26:34.002Z</time></trkpt><trkpt lat="40.329775015747565" lon="9.624486399309927"><ele>174.60000000000002</ele><time>2026-04-30T06:26:35.002Z</time></trkpt><trkpt lat="40.329894409576035" lon="9.624475829125613"><ele>175.39999999999998</ele><time>2026-04-30T06:26:36.002Z</time></trkpt><trkpt lat="40.33000348427156" lon="9.624468989597696"><ele>176.2</ele><time>2026-04-30T06:26:37.002Z</time></trkpt><trkpt lat="40.33010429473926" lon="9.624463809690848"><ele>177.0</ele><time>2026-04-30T06:26:38.003Z</time></trkpt><trkpt lat="40.33018772317216" lon="9.624467176215818"><ele>177.0</ele><time>2026-04-30T06:26:39.003Z</time></trkpt><trkpt lat="40.3302575764118" lon="9.624458423259652"><ele>177.0</ele><time>2026-04-30T06:26:40.003Z</time></trkpt><trkpt lat="40.3303647269234" lon="9.624528678897873"><ele>177.0</ele><time>2026-04-30T06:26:42.003Z</time></trkpt><trkpt lat="40.33042239115014" lon="9.62461044819945"><ele>177.0</ele><time>2026-04-30T06:26:43.003Z</time></trkpt><trkpt lat="40.330482341780744" lon="9.624691835356128"><ele>177.0</ele><time>2026-04-30T06:26:44.003Z</time></trkpt><trkpt lat="40.33054830248578" lon="9.624775322301623"><ele>177.5</ele><time>2026-04-30T06:26:45.003Z</time></trkpt><trkpt lat="40.330608747671874" lon="9.624851787952018"><ele>178.0</ele><time>2026-04-30T06:26:46.003Z</time></trkpt><trkpt lat="40.33065525563938" lon="9.624916593342668"><ele>178.5</ele><time>2026-04-30T06:26:47.003Z</time></trkpt><trkpt lat="40.33070429585377" lon="9.62505884966352"><ele>179.0</ele><time>2026-04-30T06:26:49.003Z</time></trkpt><trkpt lat="40.33073028651287" lon="9.625141597138583"><ele>179.5</ele><time>2026-04-30T06:26:50.003Z</time></trkpt><trkpt lat="40.330773472822365" lon="9.625216470023501"><ele>180.0</ele><time>2026-04-30T06:26:51.003Z</time></trkpt><trkpt lat="40.33083433931093" lon="9.625285109058971"><ele>179.8</ele><time>2026-04-30T06:26:52.003Z</time></trkpt><trkpt lat="40.3309029845227" lon="9.625332684114378"><ele>179.6</ele><time>2026-04-30T06:26:53.003Z</time></trkpt><trkpt lat="40.33097923100385" lon="9.62537419664584"><ele>179.39999999999998</ele><time>2026-04-30T06:26:54.003Z</time></trkpt><trkpt lat="40.33105983174585" lon="9.62542355639155"><ele>179.2</ele><time>2026-04-30T06:26:55.003Z</time></trkpt><trkpt lat="40.3311548301813" lon="9.625470856097275"><ele>179.0</ele><time>2026-04-30T06:26:56.003Z</time></trkpt><trkpt lat="40.33125008356055" lon="9.625508100189435"><ele>179.0</ele><time>2026-04-30T06:26:57.003Z</time></trkpt><trkpt lat="40.33133815570562" lon="9.625548821245792"><ele>179.0</ele><time>2026-04-30T06:26:58.003Z</time></trkpt><trkpt lat="40.33142090094038" lon="9.625597515075107"><ele>179.0</ele><time>2026-04-30T06:26:59.003Z</time></trkpt><trkpt lat="40.331484896857134" lon="9.625653268360436"><ele>179.0</ele><time>2026-04-30T06:27:00.003Z</time></trkpt><trkpt lat="40.33153687183328" lon="9.625719088390362"><ele>179.0</ele><time>2026-04-30T06:27:01.003Z</time></trkpt><trkpt lat="40.3316014365626" lon="9.625841296454636"><ele>179.0</ele><time>2026-04-30T06:27:03.003Z</time></trkpt><trkpt lat="40.33165554935946" lon="9.625964659720683"><ele>179.39999999999998</ele><time>2026-04-30T06:27:05.003Z</time></trkpt><trkpt lat="40.33171074409372" lon="9.626123554747757"><ele>179.8</ele><time>2026-04-30T06:27:07.003Z</time></trkpt><trkpt lat="40.33173775629676" lon="9.626201489263018"><ele>180.2</ele><time>2026-04-30T06:27:08.003Z</time></trkpt><trkpt lat="40.3318051230521" lon="9.626327484085254"><ele>180.60000000000002</ele><time>2026-04-30T06:27:10.003Z</time></trkpt><trkpt lat="40.33189831848307" lon="9.626388504751196"><ele>181.0</ele><time>2026-04-30T06:27:12.003Z</time></trkpt><trkpt lat="40.33200537342646" lon="9.626400587089536"><ele>181.0</ele><time>2026-04-30T06:27:14.003Z</time></trkpt><trkpt lat="40.33212942430173" lon="9.62636758041858"><ele>181.0</ele><time>2026-04-30T06:27:16.003Z</time></trkpt><trkpt lat="40.33221026762369" lon="9.626346532464241"><ele>181.0</ele><time>2026-04-30T06:27:17.003Z</time></trkpt><trkpt lat="40.33229503187285" lon="9.626313624354138"><ele>181.0</ele><time>2026-04-30T06:27:18.003Z</time></trkpt><trkpt lat="40.33236200777858" lon="9.6262737606831"><ele>181.0</ele><time>2026-04-30T06:27:19.003Z</time></trkpt><trkpt lat="40.332437764281266" lon="9.626236965670019"><ele>182.20000000000002</ele><time>2026-04-30T06:27:20.003Z</time></trkpt><trkpt lat="40.33251237612321" lon="9.626194404356093"><ele>183.4</ele><time>2026-04-30T06:27:21.003Z</time></trkpt><trkpt lat="40.332640795905064" lon="9.62618827573138"><ele>184.6</ele><time>2026-04-30T06:27:22.003Z</time></trkpt><trkpt lat="40.332757607127114" lon="9.626229076092212"><ele>185.8</ele><time>2026-04-30T06:27:23.003Z</time></trkpt><trkpt lat="40.33286821783808" lon="9.626200668455565"><ele>187.0</ele><time>2026-04-30T06:27:24.003Z</time></trkpt><trkpt lat="40.3329821671741" lon="9.626171403375597"><ele>188.39999999999998</ele><time>2026-04-30T06:27:25.003Z</time></trkpt><trkpt lat="40.333103047255" lon="9.626140358303642"><ele>189.79999999999998</ele><time>2026-04-30T06:27:26.003Z</time></trkpt><trkpt lat="40.333217908278556" lon="9.626110859079084"><ele>191.2</ele><time>2026-04-30T06:27:27.003Z</time></trkpt><trkpt lat="40.333321575018026" lon="9.626084234828962"><ele>192.6</ele><time>2026-04-30T06:27:28.003Z</time></trkpt><trkpt lat="40.33341892993066" lon="9.626056398207448"><ele>194.0</ele><time>2026-04-30T06:27:29.003Z</time></trkpt><trkpt lat="40.33351264718901" lon="9.62600998810515"><ele>194.0</ele><time>2026-04-30T06:27:30.003Z</time></trkpt><trkpt lat="40.33359534160368" lon="9.625932662945132"><ele>194.0</ele><time>2026-04-30T06:27:31.003Z</time></trkpt><trkpt lat="40.333672069429554" lon="9.62587439261954"><ele>194.0</ele><time>2026-04-30T06:27:32.003Z</time></trkpt><trkpt lat="40.333756537862776" lon="9.625825027488721"><ele>194.0</ele><time>2026-04-30T06:27:33.003Z</time></trkpt><trkpt lat="40.33385302723578" lon="9.62576626745376"><ele>194.0</ele><time>2026-04-30T06:27:34.003Z</time></trkpt><trkpt lat="40.333950159689486" lon="9.625698453426029"><ele>195.0</ele><time>2026-04-30T06:27:35.003Z</time></trkpt><trkpt lat="40.3340423994612" lon="9.625626932823835"><ele>196.0</ele><time>2026-04-30T06:27:36.003Z</time></trkpt><trkpt lat="40.33412896077192" lon="9.62555387837857"><ele>197.0</ele><time>2026-04-30T06:27:37.003Z</time></trkpt><trkpt lat="40.334207848710975" lon="9.625483481100298"><ele>198.0</ele><time>2026-04-30T06:27:38.003Z</time></trkpt><trkpt lat="40.3342771124131" lon="9.625423238838815"><ele>199.0</ele><time>2026-04-30T06:27:39.003Z</time></trkpt><trkpt lat="40.33433515580269" lon="9.625359216722739"><ele>199.66666666666666</ele><time>2026-04-30T06:27:40.003Z</time></trkpt><trkpt lat="40.33437939333823" lon="9.625286033113717"><ele>200.33333333333331</ele><time>2026-04-30T06:27:41.003Z</time></trkpt><trkpt lat="40.33440256718261" lon="9.625194654051718"><ele>201.0</ele><time>2026-04-30T06:27:42.003Z</time></trkpt><trkpt lat="40.33439904862849" lon="9.625096204802922"><ele>201.66666666666669</ele><time>2026-04-30T06:27:43.003Z</time></trkpt><trkpt lat="40.334372731790815" lon="9.624969755359093"><ele>202.33333333333334</ele><time>2026-04-30T06:27:44.003Z</time></trkpt><trkpt lat="40.33436504388347" lon="9.624835931075495"><ele>203.0</ele><time>2026-04-30T06:27:45.003Z</time></trkpt><trkpt lat="40.33435524197817" lon="9.624665308186463"><ele>203.75</ele><time>2026-04-30T06:27:46.003Z</time></trkpt><trkpt lat="40.33435852147067" lon="9.62441820079303"><ele>204.5</ele><time>2026-04-30T06:27:47.003Z</time></trkpt><trkpt lat="40.33444222635008" lon="9.624262839877773"><ele>205.25</ele><time>2026-04-30T06:27:48.003Z</time></trkpt><trkpt lat="40.33450607476945" lon="9.624170596864756"><ele>206.0</ele><time>2026-04-30T06:27:49.003Z</time></trkpt><trkpt lat="40.33457069465201" lon="9.624080057290387"><ele>206.0</ele><time>2026-04-30T06:27:50.003Z</time></trkpt><trkpt lat="40.334645219257325" lon="9.62397520311296"><ele>206.0</ele><time>2026-04-30T06:27:51.003Z</time></trkpt><trkpt lat="40.33471559219855" lon="9.623876128760912"><ele>206.0</ele><time>2026-04-30T06:27:52.003Z</time></trkpt><trkpt lat="40.334773537325084" lon="9.623790172560678"><ele>206.0</ele><time>2026-04-30T06:27:53.003Z</time></trkpt><trkpt lat="40.3348274288042" lon="9.623710202547615"><ele>206.0</ele><time>2026-04-30T06:27:54.003Z</time></trkpt><trkpt lat="40.33490338064464" lon="9.623598750041964"><ele>207.60000000000002</ele><time>2026-04-30T06:27:57.003Z</time></trkpt><trkpt lat="40.3349664437588" lon="9.623506435407867"><ele>209.2</ele><time>2026-04-30T06:27:58.003Z</time></trkpt><trkpt lat="40.33503250764917" lon="9.62340952054565"><ele>210.79999999999998</ele><time>2026-04-30T06:27:59.003Z</time></trkpt><trkpt lat="40.335108737629724" lon="9.623327025162453"><ele>212.39999999999998</ele><time>2026-04-30T06:28:00.003Z</time></trkpt><trkpt lat="40.33516233135322" lon="9.623213012986426"><ele>214.0</ele><time>2026-04-30T06:28:01.003Z</time></trkpt><trkpt lat="40.33521566189413" lon="9.623085813120477"><ele>214.0</ele><time>2026-04-30T06:28:02.003Z</time></trkpt><trkpt lat="40.335248349205706" lon="9.622989006261902"><ele>213.99999999999997</ele><time>2026-04-30T06:28:03.003Z</time></trkpt><trkpt lat="40.33530523333582" lon="9.62285062641911"><ele>213.99999999999997</ele><time>2026-04-30T06:28:04.003Z</time></trkpt><trkpt lat="40.33536758113305" lon="9.622709285001356"><ele>214.0</ele><time>2026-04-30T06:28:05.003Z</time></trkpt><trkpt lat="40.335430727727946" lon="9.622571196517526"><ele>214.0</ele><time>2026-04-30T06:28:06.003Z</time></trkpt><trkpt lat="40.335502318037065" lon="9.622426275333096"><ele>217.0</ele><time>2026-04-30T06:28:07.003Z</time></trkpt><trkpt lat="40.33556991216662" lon="9.622284636590239"><ele>220.0</ele><time>2026-04-30T06:28:08.003Z</time></trkpt><trkpt lat="40.33563311345709" lon="9.622144279263141"><ele>223.0</ele><time>2026-04-30T06:28:09.003Z</time></trkpt><trkpt lat="40.335690723110716" lon="9.622026972177135"><ele>226.0</ele><time>2026-04-30T06:28:10.003Z</time></trkpt><trkpt lat="40.33574404020817" lon="9.621928850046322"><ele>226.16666666666666</ele><time>2026-04-30T06:28:11.003Z</time></trkpt><trkpt lat="40.3357996315776" lon="9.621845269205076"><ele>226.33333333333331</ele><time>2026-04-30T06:28:12.003Z</time></trkpt><trkpt lat="40.33585699824355" lon="9.621787823585388"><ele>226.5</ele><time>2026-04-30T06:28:13.003Z</time></trkpt><trkpt lat="40.33592343812639" lon="9.62175831668149"><ele>226.66666666666669</ele><time>2026-04-30T06:28:14.003Z</time></trkpt><trkpt lat="40.336002707850085" lon="9.621802511569788"><ele>226.83333333333334</ele><time>2026-04-30T06:28:15.003Z</time></trkpt><trkpt lat="40.33608784927624" lon="9.621801265348811"><ele>227.0</ele><time>2026-04-30T06:28:16.003Z</time></trkpt><trkpt lat="40.336174948090914" lon="9.621795333648697"><ele>227.0</ele><time>2026-04-30T06:28:17.003Z</time></trkpt><trkpt lat="40.336252860056945" lon="9.621786054685154"><ele>227.0</ele><time>2026-04-30T06:28:18.003Z</time></trkpt><trkpt lat="40.336328867029074" lon="9.621739523216185"><ele>227.0</ele><time>2026-04-30T06:28:19.003Z</time></trkpt><trkpt lat="40.336397173104274" lon="9.621661577931157"><ele>227.0</ele><time>2026-04-30T06:28:20.003Z</time></trkpt><trkpt lat="40.336462637119126" lon="9.621568040857754"><ele>227.0</ele><time>2026-04-30T06:28:21.003Z</time></trkpt><trkpt lat="40.33654129986233" lon="9.621477467928607"><ele>229.5</ele><time>2026-04-30T06:28:22.003Z</time></trkpt><trkpt lat="40.33662790869103" lon="9.621386541845279"><ele>232.0</ele><time>2026-04-30T06:28:23.003Z</time></trkpt><trkpt lat="40.33671819215049" lon="9.62129221764299"><ele>234.5</ele><time>2026-04-30T06:28:24.003Z</time></trkpt><trkpt lat="40.33680623060023" lon="9.621197244330999"><ele>237.0</ele><time>2026-04-30T06:28:25.003Z</time></trkpt><trkpt lat="40.33686786612272" lon="9.62106558750767"><ele>237.5</ele><time>2026-04-30T06:28:26.002Z</time></trkpt><trkpt lat="40.33691643934508" lon="9.620955907631254"><ele>238.0</ele><time>2026-04-30T06:28:27.003Z</time></trkpt><trkpt lat="40.33695665337505" lon="9.62086281362267"><ele>238.5</ele><time>2026-04-30T06:28:28.003Z</time></trkpt><trkpt lat="40.3370157649599" lon="9.620791975883185"><ele>239.0</ele><time>2026-04-30T06:28:29.003Z</time></trkpt><trkpt lat="40.3370915314012" lon="9.620751182063573"><ele>239.5</ele><time>2026-04-30T06:28:30.003Z</time></trkpt><trkpt lat="40.337173549133276" lon="9.620739817350461"><ele>240.0</ele><time>2026-04-30T06:28:31.003Z</time></trkpt><trkpt lat="40.33725983864033" lon="9.620751856354675"><ele>242.0</ele><time>2026-04-30T06:28:32.003Z</time></trkpt><trkpt lat="40.33734694222237" lon="9.62074599654093"><ele>244.0</ele><time>2026-04-30T06:28:33.003Z</time></trkpt><trkpt lat="40.3374095313476" lon="9.62070461126658"><ele>246.0</ele><time>2026-04-30T06:28:34.003Z</time></trkpt><trkpt lat="40.337451369367784" lon="9.620637252956202"><ele>248.0</ele><time>2026-04-30T06:28:35.003Z</time></trkpt><trkpt lat="40.337496325647024" lon="9.62048121607455"><ele>250.0</ele><time>2026-04-30T06:28:37.003Z</time></trkpt><trkpt lat="40.337534330653135" lon="9.620388366061345"><ele>252.0</ele><time>2026-04-30T06:28:38.003Z</time></trkpt><trkpt lat="40.3375900904069" lon="9.620288554346903"><ele>252.0</ele><time>2026-04-30T06:28:40.003Z</time></trkpt><trkpt lat="40.33765103532341" lon="9.620393392238944"><ele>252.0</ele><time>2026-04-30T06:28:45.003Z</time></trkpt><trkpt lat="40.337681807554546" lon="9.620492352398626"><ele>252.0</ele><time>2026-04-30T06:28:46.003Z</time></trkpt><trkpt lat="40.337699192509334" lon="9.62060997473236"><ele>252.0</ele><time>2026-04-30T06:28:47.003Z</time></trkpt><trkpt lat="40.337718511355746" lon="9.620744463387124"><ele>252.0</ele><time>2026-04-30T06:28:48.003Z</time></trkpt><trkpt lat="40.33774557424698" lon="9.62090339393995"><ele>252.0</ele><time>2026-04-30T06:28:49.003Z</time></trkpt><trkpt lat="40.337781368134735" lon="9.621061379594744"><ele>252.0</ele><time>2026-04-30T06:28:50.003Z</time></trkpt><trkpt lat="40.33781078526045" lon="9.621232451824428"><ele>252.0</ele><time>2026-04-30T06:28:51.003Z</time></trkpt><trkpt lat="40.33784563588248" lon="9.621402418645914"><ele>252.0</ele><time>2026-04-30T06:28:52.003Z</time></trkpt><trkpt lat="40.3378787335764" lon="9.621565375532443"><ele>251.8</ele><time>2026-04-30T06:28:53.003Z</time></trkpt><trkpt lat="40.33791500777072" lon="9.621719327404834"><ele>251.6</ele><time>2026-04-30T06:28:54.003Z</time></trkpt><trkpt lat="40.337947131439265" lon="9.621855918234079"><ele>251.40000000000003</ele><time>2026-04-30T06:28:55.003Z</time></trkpt><trkpt lat="40.33799537614476" lon="9.62198505272817"><ele>251.20000000000002</ele><time>2026-04-30T06:28:56.003Z</time></trkpt><trkpt lat="40.33805429745357" lon="9.622088774051479"><ele>251.0</ele><time>2026-04-30T06:28:57.003Z</time></trkpt><trkpt lat="40.33814027568733" lon="9.622166667005354"><ele>251.0</ele><time>2026-04-30T06:28:58.003Z</time></trkpt><trkpt lat="40.33823677205608" lon="9.62222639441982"><ele>251.00000000000003</ele><time>2026-04-30T06:28:59.003Z</time></trkpt><trkpt lat="40.3383344967985" lon="9.622267617668113"><ele>251.00000000000003</ele><time>2026-04-30T06:29:00.003Z</time></trkpt><trkpt lat="40.33843975612406" lon="9.622307825170122"><ele>251.0</ele><time>2026-04-30T06:29:01.003Z</time></trkpt><trkpt lat="40.338538998394945" lon="9.622351508389318"><ele>251.0</ele><time>2026-04-30T06:29:02.003Z</time></trkpt><trkpt lat="40.33861675000774" lon="9.62241715488124"><ele>251.0</ele><time>2026-04-30T06:29:03.003Z</time></trkpt><trkpt lat="40.338686737553694" lon="9.62250586459417"><ele>251.00000000000003</ele><time>2026-04-30T06:29:04.003Z</time></trkpt><trkpt lat="40.33872505671894" lon="9.62261188123954"><ele>251.00000000000003</ele><time>2026-04-30T06:29:05.003Z</time></trkpt><trkpt lat="40.33873383836746" lon="9.622742026539104"><ele>251.0</ele><time>2026-04-30T06:29:06.003Z</time></trkpt><trkpt lat="40.33871670919036" lon="9.622895466748572"><ele>251.0</ele><time>2026-04-30T06:29:07.003Z</time></trkpt><trkpt lat="40.338707778062" lon="9.62304474274266"><ele>249.5</ele><time>2026-04-30T06:29:08.003Z</time></trkpt><trkpt lat="40.33869993724907" lon="9.623196472818377"><ele>248.0</ele><time>2026-04-30T06:29:09.003Z</time></trkpt><trkpt lat="40.338701656817555" lon="9.623357329575544"><ele>246.5</ele><time>2026-04-30T06:29:10.003Z</time></trkpt><trkpt lat="40.33871859428845" lon="9.623517848879905"><ele>245.0</ele><time>2026-04-30T06:29:11.003Z</time></trkpt><trkpt lat="40.338744694801065" lon="9.623689826362929"><ele>244.5</ele><time>2026-04-30T06:29:12.003Z</time></trkpt><trkpt lat="40.338801193155895" lon="9.623850778059742"><ele>244.0</ele><time>2026-04-30T06:29:13.003Z</time></trkpt><trkpt lat="40.33888075391711" lon="9.6240195308754"><ele>243.5</ele><time>2026-04-30T06:29:14.003Z</time></trkpt><trkpt lat="40.33896264457692" lon="9.624202042225997"><ele>243.0</ele><time>2026-04-30T06:29:15.003Z</time></trkpt><trkpt lat="40.33904895923122" lon="9.624390720332912"><ele>245.33333333333331</ele><time>2026-04-30T06:29:16.003Z</time></trkpt><trkpt lat="40.33913512333574" lon="9.624573690769232"><ele>247.66666666666666</ele><time>2026-04-30T06:29:17.004Z</time></trkpt><trkpt lat="40.33922087628408" lon="9.624763057744145"><ele>250.0</ele><time>2026-04-30T06:29:18.004Z</time></trkpt><trkpt lat="40.33931376780628" lon="9.624946004433996"><ele>250.0</ele><time>2026-04-30T06:29:19.004Z</time></trkpt><trkpt lat="40.33940671240597" lon="9.625129970331978"><ele>250.0</ele><time>2026-04-30T06:29:20.004Z</time></trkpt><trkpt lat="40.33951301243824" lon="9.62530869216608"><ele>250.0</ele><time>2026-04-30T06:29:21.004Z</time></trkpt><trkpt lat="40.33961851650936" lon="9.62547676957771"><ele>250.66666666666666</ele><time>2026-04-30T06:29:22.004Z</time></trkpt><trkpt lat="40.339723973034836" lon="9.625650554539835"><ele>251.33333333333331</ele><time>2026-04-30T06:29:23.004Z</time></trkpt><trkpt lat="40.33982653069182" lon="9.625808508323772"><ele>252.0</ele><time>2026-04-30T06:29:24.004Z</time></trkpt><trkpt lat="40.33994358219027" lon="9.625953266278641"><ele>252.0</ele><time>2026-04-30T06:29:25.004Z</time></trkpt><trkpt lat="40.34005952100352" lon="9.62608025208259"><ele>252.0</ele><time>2026-04-30T06:29:26.004Z</time></trkpt><trkpt lat="40.34017578464298" lon="9.62618065592849"><ele>252.0</ele><time>2026-04-30T06:29:27.004Z</time></trkpt><trkpt lat="40.34030887761497" lon="9.626265574555438"><ele>252.0</ele><time>2026-04-30T06:29:28.004Z</time></trkpt><trkpt lat="40.340436571002826" lon="9.626337969624014"><ele>251.2</ele><time>2026-04-30T06:29:29.004Z</time></trkpt><trkpt lat="40.34054370887676" lon="9.626408928835948"><ele>250.39999999999998</ele><time>2026-04-30T06:29:30.004Z</time></trkpt><trkpt lat="40.34064298850623" lon="9.6264875745807"><ele>249.60000000000002</ele><time>2026-04-30T06:29:31.004Z</time></trkpt><trkpt lat="40.34071009575876" lon="9.6265868674543"><ele>248.8</ele><time>2026-04-30T06:29:32.004Z</time></trkpt><trkpt lat="40.340758906679405" lon="9.626710776411745"><ele>248.0</ele><time>2026-04-30T06:29:33.004Z</time></trkpt><trkpt lat="40.3407677428527" lon="9.626858496167243"><ele>247.5</ele><time>2026-04-30T06:29:34.004Z</time></trkpt><trkpt lat="40.340770434164185" lon="9.627003277519705"><ele>247.0</ele><time>2026-04-30T06:29:35.004Z</time></trkpt><trkpt lat="40.34075304932951" lon="9.627167746665789"><ele>246.5</ele><time>2026-04-30T06:29:36.004Z</time></trkpt><trkpt lat="40.34074277535055" lon="9.627325526994717"><ele>246.0</ele><time>2026-04-30T06:29:37.004Z</time></trkpt><trkpt lat="40.340745774608635" lon="9.627479064477042"><ele>246.0</ele><time>2026-04-30T06:29:38.004Z</time></trkpt><trkpt lat="40.34077374197865" lon="9.627630029297604"><ele>246.0</ele><time>2026-04-30T06:29:39.004Z</time></trkpt><trkpt lat="40.34082314036459" lon="9.62778512164068"><ele>246.0</ele><time>2026-04-30T06:29:40.004Z</time></trkpt><trkpt lat="40.340894995645016" lon="9.627935858694343"><ele>246.0</ele><time>2026-04-30T06:29:41.004Z</time></trkpt><trkpt lat="40.34096785286266" lon="9.628073912036186"><ele>244.75</ele><time>2026-04-30T06:29:42.004Z</time></trkpt><trkpt lat="40.34104493909619" lon="9.62821558686712"><ele>243.5</ele><time>2026-04-30T06:29:43.004Z</time></trkpt><trkpt lat="40.341126843930105" lon="9.62836811771636"><ele>242.25</ele><time>2026-04-30T06:29:44.004Z</time></trkpt><trkpt lat="40.34119880855742" lon="9.628537257258602"><ele>241.0</ele><time>2026-04-30T06:29:45.004Z</time></trkpt><trkpt lat="40.34126104587671" lon="9.628715826889627"><ele>239.33333333333331</ele><time>2026-04-30T06:29:46.004Z</time></trkpt><trkpt lat="40.34129813007167" lon="9.628911754502516"><ele>237.66666666666669</ele><time>2026-04-30T06:29:47.004Z</time></trkpt><trkpt lat="40.34133449736872" lon="9.629120102156879"><ele>236.0</ele><time>2026-04-30T06:29:48.004Z</time></trkpt><trkpt lat="40.341374433110836" lon="9.629321298442662"><ele>238.33333333333334</ele><time>2026-04-30T06:29:49.004Z</time></trkpt><trkpt lat="40.3414140521471" lon="9.629518900246298"><ele>240.66666666666669</ele><time>2026-04-30T06:29:50.004Z</time></trkpt><trkpt lat="40.34144959766675" lon="9.629725624910751"><ele>243.0</ele><time>2026-04-30T06:29:51.004Z</time></trkpt><trkpt lat="40.34149083805981" lon="9.629928990527333"><ele>243.0</ele><time>2026-04-30T06:29:52.004Z</time></trkpt><trkpt lat="40.34152794713275" lon="9.630103955906732"><ele>243.0</ele><time>2026-04-30T06:29:53.004Z</time></trkpt><trkpt lat="40.341570207572445" lon="9.630261381480585"><ele>243.0</ele><time>2026-04-30T06:29:54.004Z</time></trkpt><trkpt lat="40.3416176809132" lon="9.630397510881442"><ele>243.0</ele><time>2026-04-30T06:29:55.004Z</time></trkpt><trkpt lat="40.34168177040554" lon="9.630512458853662"><ele>241.8</ele><time>2026-04-30T06:29:56.004Z</time></trkpt><trkpt lat="40.34175816809668" lon="9.630606631261644"><ele>240.60000000000002</ele><time>2026-04-30T06:29:57.004Z</time></trkpt><trkpt lat="40.34185342324411" lon="9.630663075929487"><ele>239.39999999999998</ele><time>2026-04-30T06:29:58.004Z</time></trkpt><trkpt lat="40.34196687808732" lon="9.63069266032818"><ele>238.2</ele><time>2026-04-30T06:29:59.004Z</time></trkpt><trkpt lat="40.34208509436788" lon="9.630696832232701"><ele>237.0</ele><time>2026-04-30T06:30:00.004Z</time></trkpt><trkpt lat="40.34221449010754" lon="9.630689625178281"><ele>237.0</ele><time>2026-04-30T06:30:01.004Z</time></trkpt><trkpt lat="40.34234907199709" lon="9.630683324926993"><ele>237.0</ele><time>2026-04-30T06:30:02.004Z</time></trkpt><trkpt lat="40.34248934593145" lon="9.630667305178939"><ele>237.0</ele><time>2026-04-30T06:30:03.004Z</time></trkpt><trkpt lat="40.342622116614024" lon="9.630662679869728"><ele>237.0</ele><time>2026-04-30T06:30:04.004Z</time></trkpt><trkpt lat="40.342742128589094" lon="9.630674411889217"><ele>237.0</ele><time>2026-04-30T06:30:05.004Z</time></trkpt><trkpt lat="40.3428642246905" lon="9.630709572543681"><ele>237.0</ele><time>2026-04-30T06:30:06.004Z</time></trkpt><trkpt lat="40.34296812992311" lon="9.630786269489892"><ele>237.0</ele><time>2026-04-30T06:30:07.004Z</time></trkpt><trkpt lat="40.3430624784946" lon="9.630883042850595"><ele>237.0</ele><time>2026-04-30T06:30:08.004Z</time></trkpt><trkpt lat="40.343143530842035" lon="9.631010915090515"><ele>236.25</ele><time>2026-04-30T06:30:09.004Z</time></trkpt><trkpt lat="40.34320763193123" lon="9.63116420732324"><ele>235.5</ele><time>2026-04-30T06:30:10.004Z</time></trkpt><trkpt lat="40.3432637023254" lon="9.631330818150657"><ele>234.75</ele><time>2026-04-30T06:30:11.004Z</time></trkpt><trkpt lat="40.34332497188397" lon="9.631498722774788"><ele>234.0</ele><time>2026-04-30T06:30:12.004Z</time></trkpt><trkpt lat="40.34338470551016" lon="9.631653714297766"><ele>234.0</ele><time>2026-04-30T06:30:13.004Z</time></trkpt><trkpt lat="40.34345342473424" lon="9.631795798912258"><ele>234.0</ele><time>2026-04-30T06:30:14.004Z</time></trkpt><trkpt lat="40.34353045581953" lon="9.631916652489027"><ele>234.0</ele><time>2026-04-30T06:30:15.004Z</time></trkpt><trkpt lat="40.34362592188079" lon="9.632012125152992"><ele>234.0</ele><time>2026-04-30T06:30:16.004Z</time></trkpt><trkpt lat="40.343740787257545" lon="9.632092738349748"><ele>233.75</ele><time>2026-04-30T06:30:17.004Z</time></trkpt><trkpt lat="40.34386648804542" lon="9.63215094207273"><ele>233.5</ele><time>2026-04-30T06:30:18.004Z</time></trkpt><trkpt lat="40.34401470530575" lon="9.632195761572419"><ele>233.25</ele><time>2026-04-30T06:30:19.004Z</time></trkpt><trkpt lat="40.34417143863495" lon="9.632249204762447"><ele>233.0</ele><time>2026-04-30T06:30:20.004Z</time></trkpt><trkpt lat="40.344334320523835" lon="9.632308825396425"><ele>233.0</ele><time>2026-04-30T06:30:21.004Z</time></trkpt><trkpt lat="40.34450611129301" lon="9.632373475346276"><ele>233.0</ele><time>2026-04-30T06:30:22.004Z</time></trkpt><trkpt lat="40.34467039056745" lon="9.632435718628624"><ele>233.0</ele><time>2026-04-30T06:30:23.004Z</time></trkpt><trkpt lat="40.34483874335815" lon="9.632501793433384"><ele>233.0</ele><time>2026-04-30T06:30:24.004Z</time></trkpt><trkpt lat="40.345006588395925" lon="9.632565732757191"><ele>233.0</ele><time>2026-04-30T06:30:25.004Z</time></trkpt><trkpt lat="40.345178211692705" lon="9.632625352731875"><ele>233.0</ele><time>2026-04-30T06:30:26.004Z</time></trkpt><trkpt lat="40.345349814768596" lon="9.632682324261816"><ele>233.0</ele><time>2026-04-30T06:30:27.004Z</time></trkpt><trkpt lat="40.34551489588846" lon="9.632750628171362"><ele>233.0</ele><time>2026-04-30T06:30:28.004Z</time></trkpt><trkpt lat="40.34568542921747" lon="9.632783552438765"><ele>233.0</ele><time>2026-04-30T06:30:29.002Z</time></trkpt><trkpt lat="40.345860464485796" lon="9.632776234236312"><ele>232.33333333333334</ele><time>2026-04-30T06:30:30.003Z</time></trkpt><trkpt lat="40.346046449121374" lon="9.632782137063419"><ele>231.66666666666669</ele><time>2026-04-30T06:30:31.003Z</time></trkpt><trkpt lat="40.34623027718659" lon="9.632786502914358"><ele>231.0</ele><time>2026-04-30T06:30:32.003Z</time></trkpt><trkpt lat="40.34641799427213" lon="9.632792898316463"><ele>231.0</ele><time>2026-04-30T06:30:33.003Z</time></trkpt><trkpt lat="40.346607887991" lon="9.63279495979713"><ele>231.0</ele><time>2026-04-30T06:30:34.003Z</time></trkpt><trkpt lat="40.34679983790481" lon="9.632798703279374"><ele>231.0</ele><time>2026-04-30T06:30:35.003Z</time></trkpt><trkpt lat="40.346986478622576" lon="9.632806070618086"><ele>229.66666666666669</ele><time>2026-04-30T06:30:36.003Z</time></trkpt><trkpt lat="40.34717457830515" lon="9.632808582874812"><ele>228.33333333333334</ele><time>2026-04-30T06:30:37.003Z</time></trkpt><trkpt lat="40.34736333405842" lon="9.632814275056237"><ele>227.0</ele><time>2026-04-30T06:30:38.003Z</time></trkpt><trkpt lat="40.34755369737698" lon="9.632819568013472"><ele>226.66666666666669</ele><time>2026-04-30T06:30:39.002Z</time></trkpt><trkpt lat="40.34774792585202" lon="9.632815334015133"><ele>226.33333333333331</ele><time>2026-04-30T06:30:40.002Z</time></trkpt><trkpt lat="40.34793682539031" lon="9.632815789022077"><ele>226.0</ele><time>2026-04-30T06:30:41.003Z</time></trkpt><trkpt lat="40.348127586808936" lon="9.632817971649958"><ele>225.33333333333331</ele><time>2026-04-30T06:30:42.002Z</time></trkpt><trkpt lat="40.34831215186596" lon="9.632817935108594"><ele>224.66666666666669</ele><time>2026-04-30T06:30:43.002Z</time></trkpt><trkpt lat="40.34849048614813" lon="9.632818720886382"><ele>224.0</ele><time>2026-04-30T06:30:44.002Z</time></trkpt><trkpt lat="40.34865853625896" lon="9.632837119538278"><ele>224.0</ele><time>2026-04-30T06:30:45.002Z</time></trkpt><trkpt lat="40.34881244765877" lon="9.632869489925726"><ele>224.0</ele><time>2026-04-30T06:30:46.002Z</time></trkpt><trkpt lat="40.34896307124279" lon="9.632928791550798"><ele>224.0</ele><time>2026-04-30T06:30:47.002Z</time></trkpt><trkpt lat="40.34910005295123" lon="9.633018514698456"><ele>223.33333333333334</ele><time>2026-04-30T06:30:48.002Z</time></trkpt><trkpt lat="40.349234533036054" lon="9.633131970844595"><ele>222.66666666666669</ele><time>2026-04-30T06:30:49.002Z</time></trkpt><trkpt lat="40.34936339939993" lon="9.633269403240027"><ele>222.0</ele><time>2026-04-30T06:30:50.002Z</time></trkpt><trkpt lat="40.349496785077896" lon="9.633412786935095"><ele>222.0</ele><time>2026-04-30T06:30:51.002Z</time></trkpt><trkpt lat="40.349630819335786" lon="9.633557327409168"><ele>222.0</ele><time>2026-04-30T06:30:52.002Z</time></trkpt><trkpt lat="40.34975211858888" lon="9.633687280284617"><ele>222.0</ele><time>2026-04-30T06:30:53.002Z</time></trkpt><trkpt lat="40.34987570776282" lon="9.63380904289882"><ele>221.75</ele><time>2026-04-30T06:30:54.002Z</time></trkpt><trkpt lat="40.34998949220053" lon="9.633896176662958"><ele>221.5</ele><time>2026-04-30T06:30:55.002Z</time></trkpt><trkpt lat="40.350102089111765" lon="9.633954210635691"><ele>221.25</ele><time>2026-04-30T06:30:56.002Z</time></trkpt><trkpt lat="40.350220952564236" lon="9.633984993390047"><ele>221.0</ele><time>2026-04-30T06:30:57.002Z</time></trkpt><trkpt lat="40.35035018149198" lon="9.633982378019448"><ele>221.0</ele><time>2026-04-30T06:30:58.002Z</time></trkpt><trkpt lat="40.35047867105849" lon="9.633959581780122"><ele>221.0</ele><time>2026-04-30T06:30:59.002Z</time></trkpt><trkpt lat="40.35062456955994" lon="9.633914877039484"><ele>221.0</ele><time>2026-04-30T06:31:00.002Z</time></trkpt><trkpt lat="40.350781122086" lon="9.633853133663074"><ele>221.0</ele><time>2026-04-30T06:31:01.002Z</time></trkpt><trkpt lat="40.35093452038704" lon="9.633795527858545"><ele>220.75</ele><time>2026-04-30T06:31:02.002Z</time></trkpt><trkpt lat="40.351084242417606" lon="9.633738853950508"><ele>220.5</ele><time>2026-04-30T06:31:03.002Z</time></trkpt><trkpt lat="40.351221410362186" lon="9.63368627167345"><ele>220.25</ele><time>2026-04-30T06:31:04.002Z</time></trkpt><trkpt lat="40.35134978877334" lon="9.633651542170021"><ele>220.0</ele><time>2026-04-30T06:31:05.002Z</time></trkpt><trkpt lat="40.35147582617208" lon="9.63364101504526"><ele>219.5</ele><time>2026-04-30T06:31:06.002Z</time></trkpt><trkpt lat="40.351600629443595" lon="9.633666096728735"><ele>219.0</ele><time>2026-04-30T06:31:07.003Z</time></trkpt><trkpt lat="40.35172448745861" lon="9.633721421886083"><ele>218.5</ele><time>2026-04-30T06:31:08.003Z</time></trkpt><trkpt lat="40.351837761068985" lon="9.633804029576675"><ele>218.0</ele><time>2026-04-30T06:31:09.003Z</time></trkpt><trkpt lat="40.35195295212198" lon="9.63389400850927"><ele>218.0</ele><time>2026-04-30T06:31:10.003Z</time></trkpt><trkpt lat="40.352068584867894" lon="9.63397217921677"><ele>218.0</ele><time>2026-04-30T06:31:11.003Z</time></trkpt><trkpt lat="40.35219749780194" lon="9.634036819318641"><ele>218.0</ele><time>2026-04-30T06:31:12.003Z</time></trkpt><trkpt lat="40.35234241581086" lon="9.634081491987311"><ele>218.0</ele><time>2026-04-30T06:31:13.003Z</time></trkpt><trkpt lat="40.35248712802083" lon="9.634110421586618"><ele>218.25</ele><time>2026-04-30T06:31:14.003Z</time></trkpt><trkpt lat="40.352635902928434" lon="9.634120553460608"><ele>218.5</ele><time>2026-04-30T06:31:15.003Z</time></trkpt><trkpt lat="40.35278433467401" lon="9.634133286730393"><ele>218.75</ele><time>2026-04-30T06:31:16.003Z</time></trkpt><trkpt lat="40.35292034900428" lon="9.634147220478372"><ele>219.0</ele><time>2026-04-30T06:31:17.003Z</time></trkpt><trkpt lat="40.353044364459464" lon="9.634173133933809"><ele>218.5</ele><time>2026-04-30T06:31:18.003Z</time></trkpt><trkpt lat="40.35314809982695" lon="9.6342217919581"><ele>218.0</ele><time>2026-04-30T06:31:19.003Z</time></trkpt><trkpt lat="40.35323948937199" lon="9.634296648685817"><ele>217.5</ele><time>2026-04-30T06:31:20.003Z</time></trkpt><trkpt lat="40.3533149492045" lon="9.634405749481171"><ele>217.0</ele><time>2026-04-30T06:31:21.003Z</time></trkpt><trkpt lat="40.35335786134898" lon="9.6345545937155"><ele>216.0</ele><time>2026-04-30T06:31:22.003Z</time></trkpt><trkpt lat="40.35342662449594" lon="9.634713511359857"><ele>215.0</ele><time>2026-04-30T06:31:23.003Z</time></trkpt><trkpt lat="40.35346382792142" lon="9.634907870894908"><ele>214.0</ele><time>2026-04-30T06:31:24.003Z</time></trkpt><trkpt lat="40.3535306300215" lon="9.635122812541866"><ele>213.0</ele><time>2026-04-30T06:31:25.003Z</time></trkpt><trkpt lat="40.353600912445444" lon="9.635345884824517"><ele>212.0</ele><time>2026-04-30T06:31:26.003Z</time></trkpt><trkpt lat="40.35367683311511" lon="9.63558462750776"><ele>211.0</ele><time>2026-04-30T06:31:27.003Z</time></trkpt><trkpt lat="40.35375967239162" lon="9.635829494398386"><ele>211.0</ele><time>2026-04-30T06:31:28.003Z</time></trkpt><trkpt lat="40.35384416847115" lon="9.63606236160443"><ele>211.0</ele><time>2026-04-30T06:31:29.003Z</time></trkpt><trkpt lat="40.35390059023509" lon="9.636288346518299"><ele>211.0</ele><time>2026-04-30T06:31:30.003Z</time></trkpt><trkpt lat="40.35396031713147" lon="9.6364805199265"><ele>210.33333333333331</ele><time>2026-04-30T06:31:31.003Z</time></trkpt><trkpt lat="40.354021961324136" lon="9.636679163279066"><ele>209.66666666666669</ele><time>2026-04-30T06:31:32.003Z</time></trkpt><trkpt lat="40.35410003012426" lon="9.63688521300177"><ele>209.0</ele><time>2026-04-30T06:31:33.003Z</time></trkpt><trkpt lat="40.35416174538446" lon="9.63709766087627"><ele>209.0</ele><time>2026-04-30T06:31:34.003Z</time></trkpt><trkpt lat="40.35422474611382" lon="9.637281615760847"><ele>209.0</ele><time>2026-04-30T06:31:35.003Z</time></trkpt><trkpt lat="40.35426148293268" lon="9.637452292634407"><ele>209.0</ele><time>2026-04-30T06:31:36.003Z</time></trkpt><trkpt lat="40.35430188373778" lon="9.63758269862474"><ele>209.0</ele><time>2026-04-30T06:31:37.003Z</time></trkpt><trkpt lat="40.35433059500914" lon="9.637675373055094"><ele>209.0</ele><time>2026-04-30T06:31:38.003Z</time></trkpt><trkpt lat="40.35436680500214" lon="9.63779225264823"><ele>209.0</ele><time>2026-04-30T06:31:40.003Z</time></trkpt><trkpt lat="40.35453335594964" lon="9.637756766112826"><ele>209.0</ele><time>2026-04-30T06:31:41.003Z</time></trkpt><trkpt lat="40.3546214323796" lon="9.637764772500866"><ele>209.0</ele><time>2026-04-30T06:31:42.003Z</time></trkpt><trkpt lat="40.354715938386946" lon="9.637770423646016"><ele>209.0</ele><time>2026-04-30T06:31:43.003Z</time></trkpt><trkpt lat="40.354813736956956" lon="9.637809202987965"><ele>209.2</ele><time>2026-04-30T06:31:43.936Z</time></trkpt><trkpt lat="40.35491257478753" lon="9.63782752035392"><ele>209.39999999999998</ele><time>2026-04-30T06:31:44.936Z</time></trkpt><trkpt lat="40.35500390207566" lon="9.637823041890218"><ele>209.6</ele><time>2026-04-30T06:31:45.936Z</time></trkpt><trkpt lat="40.355079848961196" lon="9.637844671434713"><ele>209.8</ele><time>2026-04-30T06:31:46.936Z</time></trkpt><trkpt lat="40.355155478968236" lon="9.637867995421452"><ele>210.0</ele><time>2026-04-30T06:31:47.936Z</time></trkpt><trkpt lat="40.35527585431396" lon="9.637897029684893"><ele>210.0</ele><time>2026-04-30T06:31:49.936Z</time></trkpt><trkpt lat="40.35538651906423" lon="9.637925034712536"><ele>210.0</ele><time>2026-04-30T06:31:51.936Z</time></trkpt><trkpt lat="40.355478950708324" lon="9.63794459219698"><ele>210.0</ele><time>2026-04-30T06:31:53.936Z</time></trkpt><trkpt lat="40.35556325689559" lon="9.637955432957902"><ele>210.0</ele><time>2026-04-30T06:31:56.936Z</time></trkpt><trkpt lat="40.35562876641739" lon="9.637973528845867"><ele>210.0</ele><time>2026-04-30T06:32:00.936Z</time></trkpt><trkpt lat="40.35570238363436" lon="9.637978993163639"><ele>210.0</ele><time>2026-04-30T06:32:05.936Z</time></trkpt><trkpt lat="40.35577439423415" lon="9.63799253723087"><ele>209.66666666666666</ele><time>2026-04-30T06:32:07.936Z</time></trkpt><trkpt lat="40.35584296167749" lon="9.638005391363423"><ele>209.33333333333331</ele><time>2026-04-30T06:32:09.936Z</time></trkpt><trkpt lat="40.355920918050124" lon="9.637998546522095"><ele>209.0</ele><time>2026-04-30T06:32:11.936Z</time></trkpt><trkpt lat="40.356000879566054" lon="9.638029138830836"><ele>208.66666666666666</ele><time>2026-04-30T06:32:13.936Z</time></trkpt><trkpt lat="40.35607404923689" lon="9.638042604709034"><ele>208.33333333333331</ele><time>2026-04-30T06:32:15.936Z</time></trkpt><trkpt lat="40.35616896067612" lon="9.638047490204244"><ele>208.0</ele><time>2026-04-30T06:32:17.936Z</time></trkpt><trkpt lat="40.3562671680704" lon="9.63806930988039"><ele>207.99999999999997</ele><time>2026-04-30T06:32:19.936Z</time></trkpt><trkpt lat="40.35635398614694" lon="9.638089197152254"><ele>208.0</ele><time>2026-04-30T06:32:21.936Z</time></trkpt><trkpt lat="40.356418364052146" lon="9.638098622254034"><ele>208.0</ele><time>2026-04-30T06:32:22.936Z</time></trkpt><trkpt lat="40.356483223112846" lon="9.638109981303886"><ele>208.0</ele><time>2026-04-30T06:32:23.936Z</time></trkpt><trkpt lat="40.35655598326099" lon="9.638127241839907"><ele>207.99999999999997</ele><time>2026-04-30T06:32:24.936Z</time></trkpt><trkpt lat="40.356635800437836" lon="9.638145921940465"><ele>208.0</ele><time>2026-04-30T06:32:25.936Z</time></trkpt><trkpt lat="40.35672073954048" lon="9.638162631773662"><ele>207.60000000000002</ele><time>2026-04-30T06:32:26.936Z</time></trkpt><trkpt lat="40.35680554025621" lon="9.63818093057754"><ele>207.20000000000002</ele><time>2026-04-30T06:32:27.936Z</time></trkpt><trkpt lat="40.35689773253835" lon="9.638196746830188"><ele>206.8</ele><time>2026-04-30T06:32:28.935Z</time></trkpt><trkpt lat="40.356992915208004" lon="9.638213581899821"><ele>206.4</ele><time>2026-04-30T06:32:29.935Z</time></trkpt><trkpt lat="40.35708204332876" lon="9.638252784578043"><ele>206.0</ele><time>2026-04-30T06:32:30.935Z</time></trkpt><trkpt lat="40.35717317744833" lon="9.638270545901724"><ele>205.60000000000002</ele><time>2026-04-30T06:32:31.935Z</time></trkpt><trkpt lat="40.35725995672949" lon="9.638285186396297"><ele>205.2</ele><time>2026-04-30T06:32:32.935Z</time></trkpt><trkpt lat="40.3573501612903" lon="9.638298426817164"><ele>204.8</ele><time>2026-04-30T06:32:33.935Z</time></trkpt><trkpt lat="40.35744389168458" lon="9.638305880565868"><ele>204.39999999999998</ele><time>2026-04-30T06:32:34.935Z</time></trkpt><trkpt lat="40.35754218314242" lon="9.638307850039553"><ele>204.0</ele><time>2026-04-30T06:32:35.934Z</time></trkpt><trkpt lat="40.35765091408596" lon="9.6382926698648"><ele>204.0</ele><time>2026-04-30T06:32:36.934Z</time></trkpt><trkpt lat="40.35776343896091" lon="9.638272725800713"><ele>204.0</ele><time>2026-04-30T06:32:37.935Z</time></trkpt><trkpt lat="40.3578804871727" lon="9.638245347283188"><ele>204.0</ele><time>2026-04-30T06:32:38.934Z</time></trkpt><trkpt lat="40.35799584163631" lon="9.638217743931717"><ele>204.0</ele><time>2026-04-30T06:32:39.934Z</time></trkpt><trkpt lat="40.35811249051902" lon="9.638188260450438"><ele>203.75</ele><time>2026-04-30T06:32:40.934Z</time></trkpt><trkpt lat="40.35823412628963" lon="9.638153467267403"><ele>203.5</ele><time>2026-04-30T06:32:41.935Z</time></trkpt><trkpt lat="40.35835319423227" lon="9.638116252268768"><ele>203.25</ele><time>2026-04-30T06:32:42.935Z</time></trkpt><trkpt lat="40.35846190231971" lon="9.638074275045165"><ele>203.0</ele><time>2026-04-30T06:32:43.935Z</time></trkpt><trkpt lat="40.35855988177494" lon="9.638017699367792"><ele>203.0</ele><time>2026-04-30T06:32:44.934Z</time></trkpt><trkpt lat="40.35866617417949" lon="9.637965447873407"><ele>203.0</ele><time>2026-04-30T06:32:45.934Z</time></trkpt><trkpt lat="40.35876468581645" lon="9.637868033899869"><ele>203.0</ele><time>2026-04-30T06:32:46.934Z</time></trkpt><trkpt lat="40.35886373552878" lon="9.637737549199688"><ele>203.0</ele><time>2026-04-30T06:32:47.934Z</time></trkpt><trkpt lat="40.35895672901546" lon="9.637607986791668"><ele>203.2</ele><time>2026-04-30T06:32:48.934Z</time></trkpt><trkpt lat="40.359033286412625" lon="9.637484226217607"><ele>203.4</ele><time>2026-04-30T06:32:49.934Z</time></trkpt><trkpt lat="40.35910636410582" lon="9.63737422349225"><ele>203.6</ele><time>2026-04-30T06:32:50.934Z</time></trkpt><trkpt lat="40.3591714755044" lon="9.637280680883357"><ele>203.79999999999998</ele><time>2026-04-30T06:32:51.934Z</time></trkpt><trkpt lat="40.35922520805249" lon="9.63720575195141"><ele>204.0</ele><time>2026-04-30T06:32:52.934Z</time></trkpt><trkpt lat="40.359269770060095" lon="9.637146756004352"><ele>204.0</ele><time>2026-04-30T06:32:53.934Z</time></trkpt><trkpt lat="40.35934967874578" lon="9.637011002933962"><ele>204.0</ele><time>2026-04-30T06:32:55.934Z</time></trkpt><trkpt lat="40.359402416684325" lon="9.636931182190533"><ele>204.0</ele><time>2026-04-30T06:32:56.934Z</time></trkpt><trkpt lat="40.359467255303336" lon="9.636820499175004"><ele>204.0</ele><time>2026-04-30T06:32:57.934Z</time></trkpt><trkpt lat="40.35953610188844" lon="9.636710500186515"><ele>204.0</ele><time>2026-04-30T06:32:58.934Z</time></trkpt><trkpt lat="40.35960771223879" lon="9.636598323823547"><ele>204.2</ele><time>2026-04-30T06:32:59.934Z</time></trkpt><trkpt lat="40.35968220437902" lon="9.636481839648646"><ele>204.39999999999998</ele><time>2026-04-30T06:33:00.934Z</time></trkpt><trkpt lat="40.35975616182764" lon="9.636359122345874"><ele>204.6</ele><time>2026-04-30T06:33:01.934Z</time></trkpt><trkpt lat="40.35983121960719" lon="9.636256293403617"><ele>204.8</ele><time>2026-04-30T06:33:02.934Z</time></trkpt><trkpt lat="40.3598946597085" lon="9.636159572170346"><ele>205.0</ele><time>2026-04-30T06:33:03.934Z</time></trkpt><trkpt lat="40.35995457851053" lon="9.636086938978332"><ele>205.0</ele><time>2026-04-30T06:33:04.934Z</time></trkpt><trkpt lat="40.36004981136508" lon="9.635999778992431"><ele>205.0</ele><time>2026-04-30T06:33:06.934Z</time></trkpt><trkpt lat="40.36009057365404" lon="9.635908151826339"><ele>205.0</ele><time>2026-04-30T06:33:08.934Z</time></trkpt><trkpt lat="40.360194184369995" lon="9.636019675116135"><ele>205.0</ele><time>2026-04-30T06:33:09.934Z</time></trkpt><trkpt lat="40.36030160073226" lon="9.63607008596289"><ele>205.0</ele><time>2026-04-30T06:33:11.934Z</time></trkpt><trkpt lat="40.360333532553234" lon="9.636193865098313"><ele>205.25</ele><time>2026-04-30T06:33:12.934Z</time></trkpt><trkpt lat="40.360400012748386" lon="9.636303004114861"><ele>205.5</ele><time>2026-04-30T06:33:13.934Z</time></trkpt><trkpt lat="40.36047956675287" lon="9.636420566889859"><ele>205.75</ele><time>2026-04-30T06:33:14.933Z</time></trkpt><trkpt lat="40.360563294641025" lon="9.63652945938407"><ele>206.0</ele><time>2026-04-30T06:33:15.933Z</time></trkpt><trkpt lat="40.36067069745147" lon="9.636609817412452"><ele>208.0</ele><time>2026-04-30T06:33:16.933Z</time></trkpt><trkpt lat="40.360770282808545" lon="9.636702801521508"><ele>210.0</ele><time>2026-04-30T06:33:17.933Z</time></trkpt><trkpt lat="40.36088134379856" lon="9.636784970498214"><ele>212.0</ele><time>2026-04-30T06:33:18.933Z</time></trkpt><trkpt lat="40.36100107521044" lon="9.636864062555583"><ele>214.0</ele><time>2026-04-30T06:33:19.933Z</time></trkpt><trkpt lat="40.361128254875496" lon="9.636936899545518"><ele>214.5</ele><time>2026-04-30T06:33:20.933Z</time></trkpt><trkpt lat="40.36125579198792" lon="9.637014786693216"><ele>215.0</ele><time>2026-04-30T06:33:21.933Z</time></trkpt><trkpt lat="40.361382347474404" lon="9.637091652813352"><ele>215.5</ele><time>2026-04-30T06:33:22.933Z</time></trkpt><trkpt lat="40.36150443411064" lon="9.63716767043039"><ele>216.0</ele><time>2026-04-30T06:33:23.933Z</time></trkpt><trkpt lat="40.36163089598993" lon="9.637245202687103"><ele>218.0</ele><time>2026-04-30T06:33:24.933Z</time></trkpt><trkpt lat="40.36175871762828" lon="9.637321790550011"><ele>220.0</ele><time>2026-04-30T06:33:25.933Z</time></trkpt><trkpt lat="40.36188314253693" lon="9.637399256041506"><ele>222.0</ele><time>2026-04-30T06:33:26.933Z</time></trkpt><trkpt lat="40.362012295601104" lon="9.637481817176077"><ele>224.0</ele><time>2026-04-30T06:33:27.933Z</time></trkpt><trkpt lat="40.36213733761891" lon="9.637561535316598"><ele>226.0</ele><time>2026-04-30T06:33:28.933Z</time></trkpt><trkpt lat="40.36226573775175" lon="9.637645122436332"><ele>228.0</ele><time>2026-04-30T06:33:29.933Z</time></trkpt><trkpt lat="40.362396147737265" lon="9.637729232723386"><ele>230.0</ele><time>2026-04-30T06:33:30.933Z</time></trkpt><trkpt lat="40.36252545101616" lon="9.637808731624913"><ele>232.0</ele><time>2026-04-30T06:33:31.933Z</time></trkpt><trkpt lat="40.36264071813002" lon="9.637876714584543"><ele>233.25</ele><time>2026-04-30T06:33:32.933Z</time></trkpt><trkpt lat="40.3627463313368" lon="9.637924161020093"><ele>234.5</ele><time>2026-04-30T06:33:33.933Z</time></trkpt><trkpt lat="40.362853713354724" lon="9.637932734940168"><ele>235.75</ele><time>2026-04-30T06:33:34.933Z</time></trkpt><trkpt lat="40.36297482613867" lon="9.637941002078424"><ele>237.0</ele><time>2026-04-30T06:33:35.933Z</time></trkpt><trkpt lat="40.36309538227017" lon="9.637939760016769"><ele>240.0</ele><time>2026-04-30T06:33:36.933Z</time></trkpt><trkpt lat="40.3632176438951" lon="9.637936778010959"><ele>243.0</ele><time>2026-04-30T06:33:37.933Z</time></trkpt><trkpt lat="40.36334357787797" lon="9.637933754362358"><ele>246.0</ele><time>2026-04-30T06:33:38.933Z</time></trkpt><trkpt lat="40.36346840848311" lon="9.637932132462543"><ele>249.0</ele><time>2026-04-30T06:33:39.933Z</time></trkpt><trkpt lat="40.36359529656181" lon="9.637927979235009"><ele>249.0</ele><time>2026-04-30T06:33:40.933Z</time></trkpt><trkpt lat="40.36371771295039" lon="9.637919570027064"><ele>249.0</ele><time>2026-04-30T06:33:41.933Z</time></trkpt><trkpt lat="40.363847793262686" lon="9.637916314531525"><ele>249.0</ele><time>2026-04-30T06:33:42.933Z</time></trkpt><trkpt lat="40.36398027083479" lon="9.63791314376383"><ele>249.0</ele><time>2026-04-30T06:33:43.933Z</time></trkpt><trkpt lat="40.36411217903461" lon="9.637910294561738"><ele>251.75</ele><time>2026-04-30T06:33:44.933Z</time></trkpt><trkpt lat="40.364250049869625" lon="9.637908547286251"><ele>254.5</ele><time>2026-04-30T06:33:45.933Z</time></trkpt><trkpt lat="40.36438860240812" lon="9.63790582769823"><ele>257.25</ele><time>2026-04-30T06:33:46.933Z</time></trkpt><trkpt lat="40.36452364706298" lon="9.63790323864992"><ele>260.0</ele><time>2026-04-30T06:33:47.933Z</time></trkpt><trkpt lat="40.36465448789754" lon="9.637901249967744"><ele>262.8</ele><time>2026-04-30T06:33:48.933Z</time></trkpt><trkpt lat="40.364775121811796" lon="9.637901926372997"><ele>265.6</ele><time>2026-04-30T06:33:49.933Z</time></trkpt><trkpt lat="40.36489198671221" lon="9.637918284406682"><ele>268.4</ele><time>2026-04-30T06:33:50.933Z</time></trkpt><trkpt lat="40.364997895522734" lon="9.637946705155848"><ele>271.2</ele><time>2026-04-30T06:33:51.933Z</time></trkpt><trkpt lat="40.36506713995614" lon="9.637976365527551"><ele>274.0</ele><time>2026-04-30T06:33:52.933Z</time></trkpt><trkpt lat="40.36512623262229" lon="9.638044345655555"><ele>274.0</ele><time>2026-04-30T06:33:54.933Z</time></trkpt><trkpt lat="40.365123909791265" lon="9.638212352057698"><ele>274.0</ele><time>2026-04-30T06:33:57.933Z</time></trkpt><trkpt lat="40.36508640460619" lon="9.638282075051615"><ele>274.0</ele><time>2026-04-30T06:33:58.932Z</time></trkpt><trkpt lat="40.36505018677086" lon="9.638363302926628"><ele>274.0</ele><time>2026-04-30T06:33:59.932Z</time></trkpt><trkpt lat="40.365008665765494" lon="9.63846001083251"><ele>274.0</ele><time>2026-04-30T06:34:00.932Z</time></trkpt><trkpt lat="40.36496795776445" lon="9.638582252591679"><ele>273.16666666666663</ele><time>2026-04-30T06:34:01.932Z</time></trkpt><trkpt lat="40.364905673687" lon="9.638680443516332"><ele>272.3333333333333</ele><time>2026-04-30T06:34:02.932Z</time></trkpt><trkpt lat="40.36483949208154" lon="9.638761813385813"><ele>271.5</ele><time>2026-04-30T06:34:03.932Z</time></trkpt><trkpt lat="40.36477438081182" lon="9.638830979166535"><ele>270.6666666666667</ele><time>2026-04-30T06:34:04.932Z</time></trkpt><trkpt lat="40.364713844288154" lon="9.63890176386589"><ele>269.83333333333337</ele><time>2026-04-30T06:34:05.932Z</time></trkpt><trkpt lat="40.364678736153415" lon="9.639013582736727"><ele>269.0</ele><time>2026-04-30T06:34:06.932Z</time></trkpt><trkpt lat="40.36464950322001" lon="9.639141660641746"><ele>269.0</ele><time>2026-04-30T06:34:07.932Z</time></trkpt><trkpt lat="40.36462327362648" lon="9.639239172855211"><ele>269.0</ele><time>2026-04-30T06:34:08.932Z</time></trkpt><trkpt lat="40.364596853858934" lon="9.639322906733456"><ele>269.0</ele><time>2026-04-30T06:34:09.932Z</time></trkpt><trkpt lat="40.36457130602877" lon="9.639422981137871"><ele>269.0</ele><time>2026-04-30T06:34:11.932Z</time></trkpt><trkpt lat="40.36471091958985" lon="9.639481861831111"><ele>269.0</ele><time>2026-04-30T06:34:13.932Z</time></trkpt><trkpt lat="40.364775778589056" lon="9.639529946230502"><ele>269.0</ele><time>2026-04-30T06:34:14.932Z</time></trkpt><trkpt lat="40.36483596041572" lon="9.639554944353655"><ele>272.83333333333337</ele><time>2026-04-30T06:34:15.932Z</time></trkpt><trkpt lat="40.364917937412436" lon="9.6395772584733"><ele>276.6666666666667</ele><time>2026-04-30T06:34:16.932Z</time></trkpt><trkpt lat="40.36497464363622" lon="9.639627342089828"><ele>280.5</ele><time>2026-04-30T06:34:17.932Z</time></trkpt><trkpt lat="40.365032803012575" lon="9.63970346420108"><ele>284.3333333333333</ele><time>2026-04-30T06:34:19.932Z</time></trkpt><trkpt lat="40.365012379867316" lon="9.639788131595715"><ele>288.16666666666663</ele><time>2026-04-30T06:34:20.932Z</time></trkpt><trkpt lat="40.36505569493948" lon="9.639879170709486"><ele>292.0</ele><time>2026-04-30T06:34:21.932Z</time></trkpt><trkpt lat="40.365073824379486" lon="9.639973505657318"><ele>292.0</ele><time>2026-04-30T06:34:22.932Z</time></trkpt><trkpt lat="40.36513195994564" lon="9.640068140892865"><ele>292.0</ele><time>2026-04-30T06:34:23.932Z</time></trkpt><trkpt lat="40.365163745562555" lon="9.640185974418754"><ele>292.0</ele><time>2026-04-30T06:34:24.932Z</time></trkpt><trkpt lat="40.36518135194251" lon="9.640299560366245"><ele>292.0</ele><time>2026-04-30T06:34:25.932Z</time></trkpt><trkpt lat="40.365205882678666" lon="9.640433875806048"><ele>292.0</ele><time>2026-04-30T06:34:26.932Z</time></trkpt><trkpt lat="40.36522689277491" lon="9.640555999609704"><ele>291.6</ele><time>2026-04-30T06:34:27.932Z</time></trkpt><trkpt lat="40.36524563388128" lon="9.640678602194814"><ele>291.2</ele><time>2026-04-30T06:34:28.932Z</time></trkpt><trkpt lat="40.36528601295253" lon="9.640795455486531"><ele>290.8</ele><time>2026-04-30T06:34:29.932Z</time></trkpt><trkpt lat="40.365318568775145" lon="9.640914714277912"><ele>290.4</ele><time>2026-04-30T06:34:30.932Z</time></trkpt><trkpt lat="40.36537526921654" lon="9.641033368954705"><ele>290.0</ele><time>2026-04-30T06:34:31.932Z</time></trkpt><trkpt lat="40.36544460278821" lon="9.641158383708005"><ele>289.6666666666667</ele><time>2026-04-30T06:34:32.932Z</time></trkpt><trkpt lat="40.36550729531685" lon="9.64126863184467"><ele>289.33333333333337</ele><time>2026-04-30T06:34:33.932Z</time></trkpt><trkpt lat="40.36555995068837" lon="9.641366937342484"><ele>289.0</ele><time>2026-04-30T06:34:34.932Z</time></trkpt><trkpt lat="40.365609159847786" lon="9.64145873635035"><ele>288.6666666666667</ele><time>2026-04-30T06:34:35.932Z</time></trkpt><trkpt lat="40.3656280484933" lon="9.64156111184774"><ele>288.3333333333333</ele><time>2026-04-30T06:34:36.932Z</time></trkpt><trkpt lat="40.365661435419184" lon="9.641638579454336"><ele>288.0</ele><time>2026-04-30T06:34:37.932Z</time></trkpt><trkpt lat="40.36565978597009" lon="9.641745889402463"><ele>293.0</ele><time>2026-04-30T06:34:38.932Z</time></trkpt><trkpt lat="40.36565046093535" lon="9.64188235463035"><ele>298.0</ele><time>2026-04-30T06:34:39.932Z</time></trkpt><trkpt lat="40.36564381277304" lon="9.642012610836497"><ele>303.0</ele><time>2026-04-30T06:34:40.931Z</time></trkpt><trkpt lat="40.365639361116415" lon="9.642140092243025"><ele>308.0</ele><time>2026-04-30T06:34:41.931Z</time></trkpt><trkpt lat="40.365666754003556" lon="9.642245388881685"><ele>313.0</ele><time>2026-04-30T06:34:42.931Z</time></trkpt><trkpt lat="40.36570592801879" lon="9.642343796118146"><ele>313.3333333333333</ele><time>2026-04-30T06:34:43.93Z</time></trkpt><trkpt lat="40.365760300700785" lon="9.642425378511767"><ele>313.66666666666663</ele><time>2026-04-30T06:34:44.931Z</time></trkpt><trkpt lat="40.36580784019827" lon="9.64249062368203"><ele>314.0</ele><time>2026-04-30T06:34:45.931Z</time></trkpt><trkpt lat="40.3658203723426" lon="9.64262798550737"><ele>314.3333333333333</ele><time>2026-04-30T06:34:47.931Z</time></trkpt><trkpt lat="40.36577987078801" lon="9.6427119771773"><ele>314.6666666666667</ele><time>2026-04-30T06:34:48.931Z</time></trkpt><trkpt lat="40.365769302615334" lon="9.642817906721913"><ele>315.0</ele><time>2026-04-30T06:34:49.93Z</time></trkpt><trkpt lat="40.36575153695262" lon="9.642926086179463"><ele>317.0</ele><time>2026-04-30T06:34:50.931Z</time></trkpt><trkpt lat="40.36574207247977" lon="9.643063286302517"><ele>319.0</ele><time>2026-04-30T06:34:51.931Z</time></trkpt><trkpt lat="40.3657284740754" lon="9.643214439865055"><ele>321.0</ele><time>2026-04-30T06:34:52.931Z</time></trkpt><trkpt lat="40.36571652462875" lon="9.64334621174138"><ele>323.0</ele><time>2026-04-30T06:34:53.93Z</time></trkpt><trkpt lat="40.365696655014254" lon="9.643463454121433"><ele>325.0</ele><time>2026-04-30T06:34:54.93Z</time></trkpt><trkpt lat="40.365666593472454" lon="9.643552960714027"><ele>325.0</ele><time>2026-04-30T06:34:55.93Z</time></trkpt><trkpt lat="40.36570896213939" lon="9.64365191702647"><ele>325.0</ele><time>2026-04-30T06:34:58.93Z</time></trkpt><trkpt lat="40.36582662149231" lon="9.643586239944788"><ele>325.0</ele><time>2026-04-30T06:35:00.93Z</time></trkpt><trkpt lat="40.365853938734034" lon="9.643481801910937"><ele>325.0</ele><time>2026-04-30T06:35:01.93Z</time></trkpt><trkpt lat="40.365895575412694" lon="9.643382493326849"><ele>325.0</ele><time>2026-04-30T06:35:02.93Z</time></trkpt><trkpt lat="40.36594550104727" lon="9.643256795887359"><ele>325.0</ele><time>2026-04-30T06:35:03.93Z</time></trkpt><trkpt lat="40.36600063718803" lon="9.64314257202236"><ele>325.0</ele><time>2026-04-30T06:35:04.93Z</time></trkpt><trkpt lat="40.36606334818571" lon="9.64302427459725"><ele>325.0</ele><time>2026-04-30T06:35:05.93Z</time></trkpt><trkpt lat="40.36613187113818" lon="9.642896301896805"><ele>325.0</ele><time>2026-04-30T06:35:06.93Z</time></trkpt><trkpt lat="40.366208907718324" lon="9.642775207255985"><ele>323.0</ele><time>2026-04-30T06:35:07.93Z</time></trkpt><trkpt lat="40.36629338503464" lon="9.642681531504982"><ele>321.0</ele><time>2026-04-30T06:35:08.93Z</time></trkpt><trkpt lat="40.36636749644962" lon="9.642604317909344"><ele>319.0</ele><time>2026-04-30T06:35:09.93Z</time></trkpt><trkpt lat="40.36642816722873" lon="9.642519110961615"><ele>317.0</ele><time>2026-04-30T06:35:10.93Z</time></trkpt><trkpt lat="40.36646583113839" lon="9.642394094769974"><ele>315.0</ele><time>2026-04-30T06:35:12.93Z</time></trkpt><trkpt lat="40.36643609618089" lon="9.642228863669935"><ele>321.0</ele><time>2026-04-30T06:35:14.93Z</time></trkpt><trkpt lat="40.36642913571683" lon="9.642114623815754"><ele>327.0</ele><time>2026-04-30T06:35:15.93Z</time></trkpt><trkpt lat="40.366439853857905" lon="9.642001444586988"><ele>333.0</ele><time>2026-04-30T06:35:16.93Z</time></trkpt><trkpt lat="40.366489237528135" lon="9.6418951549299"><ele>339.0</ele><time>2026-04-30T06:35:17.93Z</time></trkpt><trkpt lat="40.36653772147891" lon="9.64178336714905"><ele>345.0</ele><time>2026-04-30T06:35:18.93Z</time></trkpt><trkpt lat="40.366567758383944" lon="9.641664132728224"><ele>345.0</ele><time>2026-04-30T06:35:19.93Z</time></trkpt><trkpt lat="40.36657958800144" lon="9.641527880376293"><ele>345.0</ele><time>2026-04-30T06:35:20.929Z</time></trkpt><trkpt lat="40.36662374175193" lon="9.641407530451596"><ele>345.0</ele><time>2026-04-30T06:35:21.929Z</time></trkpt><trkpt lat="40.366665313552524" lon="9.64127568180068"><ele>345.0</ele><time>2026-04-30T06:35:22.929Z</time></trkpt><trkpt lat="40.36669601880005" lon="9.641148153670645"><ele>345.0</ele><time>2026-04-30T06:35:23.929Z</time></trkpt><trkpt lat="40.36669489636799" lon="9.641024710775328"><ele>344.2</ele><time>2026-04-30T06:35:24.929Z</time></trkpt><trkpt lat="40.366724272685325" lon="9.640901395143116"><ele>343.4</ele><time>2026-04-30T06:35:25.929Z</time></trkpt><trkpt lat="40.36673341881746" lon="9.640786369642852"><ele>342.6</ele><time>2026-04-30T06:35:26.929Z</time></trkpt><trkpt lat="40.36676947347174" lon="9.640680693247575"><ele>341.8</ele><time>2026-04-30T06:35:27.929Z</time></trkpt><trkpt lat="40.36680497290374" lon="9.640564158613106"><ele>341.0</ele><time>2026-04-30T06:35:28.929Z</time></trkpt><trkpt lat="40.36683813468669" lon="9.640446134926558"><ele>341.0</ele><time>2026-04-30T06:35:29.929Z</time></trkpt><trkpt lat="40.366865301531774" lon="9.640330500417354"><ele>341.0</ele><time>2026-04-30T06:35:30.929Z</time></trkpt><trkpt lat="40.36689930878212" lon="9.640225648150183"><ele>341.0</ele><time>2026-04-30T06:35:31.929Z</time></trkpt><trkpt lat="40.36693967552936" lon="9.640109111978097"><ele>341.0</ele><time>2026-04-30T06:35:32.929Z</time></trkpt><trkpt lat="40.36698717793715" lon="9.639992918009684"><ele>341.0</ele><time>2026-04-30T06:35:33.929Z</time></trkpt><trkpt lat="40.36702930226766" lon="9.639880210671233"><ele>340.83333333333337</ele><time>2026-04-30T06:35:34.929Z</time></trkpt><trkpt lat="40.36704877659456" lon="9.639782624481777"><ele>340.6666666666667</ele><time>2026-04-30T06:35:35.929Z</time></trkpt><trkpt lat="40.36709308594462" lon="9.63970005136463"><ele>340.5</ele><time>2026-04-30T06:35:37.929Z</time></trkpt><trkpt lat="40.367107393548935" lon="9.639874689264929"><ele>340.3333333333333</ele><time>2026-04-30T06:35:41.929Z</time></trkpt><trkpt lat="40.36710195792623" lon="9.639968244270635"><ele>340.16666666666663</ele><time>2026-04-30T06:35:42.929Z</time></trkpt><trkpt lat="40.36710914876176" lon="9.640077997077745"><ele>340.0</ele><time>2026-04-30T06:35:43.929Z</time></trkpt><trkpt lat="40.367135748888806" lon="9.640169315996872"><ele>340.0</ele><time>2026-04-30T06:35:44.929Z</time></trkpt><trkpt lat="40.36715566691607" lon="9.640279299595678"><ele>340.0</ele><time>2026-04-30T06:35:45.929Z</time></trkpt><trkpt lat="40.367183772754224" lon="9.640387417179497"><ele>340.0</ele><time>2026-04-30T06:35:46.929Z</time></trkpt><trkpt lat="40.36721153263977" lon="9.640506770963848"><ele>340.0</ele><time>2026-04-30T06:35:47.929Z</time></trkpt><trkpt lat="40.3672157446008" lon="9.64061986529396"><ele>340.0</ele><time>2026-04-30T06:35:48.929Z</time></trkpt><trkpt lat="40.36721408552867" lon="9.64073262597595"><ele>340.0</ele><time>2026-04-30T06:35:49.929Z</time></trkpt><trkpt lat="40.367229966974" lon="9.640861364914395"><ele>347.0</ele><time>2026-04-30T06:35:50.929Z</time></trkpt><trkpt lat="40.36724930094558" lon="9.64097439889316"><ele>354.0</ele><time>2026-04-30T06:35:51.929Z</time></trkpt><trkpt lat="40.367284632494666" lon="9.641049708672643"><ele>361.0</ele><time>2026-04-30T06:35:52.929Z</time></trkpt><trkpt lat="40.36733270686674" lon="9.641113638728097"><ele>368.0</ele><time>2026-04-30T06:35:55.929Z</time></trkpt><trkpt lat="40.36737529203511" lon="9.640981268188472"><ele>375.0</ele><time>2026-04-30T06:35:59.929Z</time></trkpt><trkpt lat="40.36741005697945" lon="9.640800053078681"><ele>375.0</ele><time>2026-04-30T06:36:01.929Z</time></trkpt><trkpt lat="40.36744759621091" lon="9.640730248718596"><ele>375.0</ele><time>2026-04-30T06:36:02.929Z</time></trkpt><trkpt lat="40.36752977234105" lon="9.640602325096062"><ele>375.0</ele><time>2026-04-30T06:36:04.928Z</time></trkpt><trkpt lat="40.367547987372596" lon="9.64049869070739"><ele>375.0</ele><time>2026-04-30T06:36:05.928Z</time></trkpt><trkpt lat="40.36758699670754" lon="9.640399800176722"><ele>375.0</ele><time>2026-04-30T06:36:06.928Z</time></trkpt><trkpt lat="40.36763769464506" lon="9.64033310823673"><ele>375.0</ele><time>2026-04-30T06:36:07.928Z</time></trkpt><trkpt lat="40.36771260305592" lon="9.640309166836246"><ele>375.0</ele><time>2026-04-30T06:36:08.928Z</time></trkpt><trkpt lat="40.367821056871385" lon="9.640322739427067"><ele>375.0</ele><time>2026-04-30T06:36:10.928Z</time></trkpt><trkpt lat="40.36794805984811" lon="9.640381647913134"><ele>375.0</ele><time>2026-04-30T06:36:12.928Z</time></trkpt><trkpt lat="40.36800361198585" lon="9.640434077729331"><ele>375.0</ele><time>2026-04-30T06:36:13.928Z</time></trkpt><trkpt lat="40.36805763498968" lon="9.64049118795557"><ele>375.0</ele><time>2026-04-30T06:36:14.928Z</time></trkpt><trkpt lat="40.36813183912178" lon="9.64057665565085"><ele>382.0</ele><time>2026-04-30T06:36:16.928Z</time></trkpt><trkpt lat="40.368183557423485" lon="9.640645593639375"><ele>389.0</ele><time>2026-04-30T06:36:18.928Z</time></trkpt><trkpt lat="40.368405406203784" lon="9.640835871778881"><ele>396.0</ele><time>2026-04-30T06:36:20.928Z</time></trkpt><trkpt lat="40.36846751645311" lon="9.640851196096364"><ele>403.0</ele><time>2026-04-30T06:36:21.928Z</time></trkpt><trkpt lat="40.368556452053866" lon="9.640858028842183"><ele>403.00000000000006</ele><time>2026-04-30T06:36:22.928Z</time></trkpt><trkpt lat="40.36867185102849" lon="9.64080664109485"><ele>403.0</ele><time>2026-04-30T06:36:24.928Z</time></trkpt><trkpt lat="40.3687259943846" lon="9.640755102310996"><ele>403.0</ele><time>2026-04-30T06:36:25.928Z</time></trkpt><trkpt lat="40.36878176398702" lon="9.640711902815257"><ele>403.0</ele><time>2026-04-30T06:36:26.928Z</time></trkpt><trkpt lat="40.36882887607868" lon="9.640625369690662"><ele>403.00000000000006</ele><time>2026-04-30T06:36:27.928Z</time></trkpt><trkpt lat="40.36889863974966" lon="9.64054448588635"><ele>403.0</ele><time>2026-04-30T06:36:28.928Z</time></trkpt><trkpt lat="40.368964865905454" lon="9.640490566413805"><ele>407.33333333333337</ele><time>2026-04-30T06:36:29.928Z</time></trkpt><trkpt lat="40.36904357233613" lon="9.64043809555297"><ele>411.6666666666667</ele><time>2026-04-30T06:36:30.928Z</time></trkpt><trkpt lat="40.36911321544053" lon="9.640394221993917"><ele>416.0</ele><time>2026-04-30T06:36:31.928Z</time></trkpt><trkpt lat="40.36916994146228" lon="9.640356737071823"><ele>420.33333333333337</ele><time>2026-04-30T06:36:32.928Z</time></trkpt><trkpt lat="40.36921193756348" lon="9.64027226359635"><ele>424.6666666666667</ele><time>2026-04-30T06:36:34.928Z</time></trkpt><trkpt lat="40.36920570166443" lon="9.640157985168033"><ele>429.0</ele><time>2026-04-30T06:36:36.928Z</time></trkpt><trkpt lat="40.369065509469344" lon="9.640083701867963"><ele>429.5</ele><time>2026-04-30T06:36:38.928Z</time></trkpt><trkpt lat="40.36898643987585" lon="9.640098179762441"><ele>430.0</ele><time>2026-04-30T06:36:39.928Z</time></trkpt><trkpt lat="40.368885786851116" lon="9.640084254707547"><ele>430.5</ele><time>2026-04-30T06:36:40.928Z</time></trkpt><trkpt lat="40.36880666738049" lon="9.64011447223982"><ele>431.0</ele><time>2026-04-30T06:36:41.928Z</time></trkpt><trkpt lat="40.368735577927644" lon="9.640083758101474"><ele>431.5</ele><time>2026-04-30T06:36:42.928Z</time></trkpt><trkpt lat="40.36865532863637" lon="9.640069013029374"><ele>432.0</ele><time>2026-04-30T06:36:43.928Z</time></trkpt><trkpt lat="40.36864092557735" lon="9.639937368198527"><ele>428.5</ele><time>2026-04-30T06:36:45.928Z</time></trkpt><trkpt lat="40.36865372131685" lon="9.639848977962929"><ele>425.0</ele><time>2026-04-30T06:36:46.927Z</time></trkpt><trkpt lat="40.3686809416227" lon="9.639771908741402"><ele>421.5</ele><time>2026-04-30T06:36:47.927Z</time></trkpt><trkpt lat="40.36871949364952" lon="9.639621551149277"><ele>418.0</ele><time>2026-04-30T06:36:49.927Z</time></trkpt><trkpt lat="40.368701432009445" lon="9.63953259428404"><ele>414.5</ele><time>2026-04-30T06:36:50.927Z</time></trkpt><trkpt lat="40.36868455337637" lon="9.639444338081832"><ele>411.0</ele><time>2026-04-30T06:36:51.927Z</time></trkpt><trkpt lat="40.36862690081969" lon="9.639354085190178"><ele>411.0</ele><time>2026-04-30T06:36:52.927Z</time></trkpt><trkpt lat="40.36857384278473" lon="9.639264310978074"><ele>411.0</ele><time>2026-04-30T06:36:53.927Z</time></trkpt><trkpt lat="40.36851379631683" lon="9.639166054849804"><ele>411.0</ele><time>2026-04-30T06:36:54.927Z</time></trkpt><trkpt lat="40.36847924254233" lon="9.639059143171854"><ele>411.0</ele><time>2026-04-30T06:36:55.926Z</time></trkpt><trkpt lat="40.36845855121697" lon="9.638945568863898"><ele>411.0</ele><time>2026-04-30T06:36:56.927Z</time></trkpt><trkpt lat="40.36844486492083" lon="9.638829962558395"><ele>411.0</ele><time>2026-04-30T06:36:57.927Z</time></trkpt><trkpt lat="40.36843601567831" lon="9.63871933491053"><ele>410.5</ele><time>2026-04-30T06:36:58.927Z</time></trkpt><trkpt lat="40.36843182204921" lon="9.638610563562027"><ele>410.0</ele><time>2026-04-30T06:36:59.926Z</time></trkpt><trkpt lat="40.368441723990266" lon="9.638509997529948"><ele>409.5</ele><time>2026-04-30T06:37:00.926Z</time></trkpt><trkpt lat="40.368457260511164" lon="9.638414537044579"><ele>409.0</ele><time>2026-04-30T06:37:01.926Z</time></trkpt><trkpt lat="40.368488878570744" lon="9.638325482732496"><ele>408.5</ele><time>2026-04-30T06:37:02.926Z</time></trkpt><trkpt lat="40.36853248676415" lon="9.638240010309078"><ele>408.0</ele><time>2026-04-30T06:37:03.926Z</time></trkpt><trkpt lat="40.36858186076811" lon="9.63815208540536"><ele>408.0</ele><time>2026-04-30T06:37:04.926Z</time></trkpt><trkpt lat="40.36863440797023" lon="9.638072419324425"><ele>408.0</ele><time>2026-04-30T06:37:05.926Z</time></trkpt><trkpt lat="40.368699139329806" lon="9.638010384805206"><ele>408.0</ele><time>2026-04-30T06:37:06.926Z</time></trkpt><trkpt lat="40.368762413797796" lon="9.637947032598385"><ele>408.0</ele><time>2026-04-30T06:37:07.926Z</time></trkpt><trkpt lat="40.36883267693819" lon="9.637901203357613"><ele>408.0</ele><time>2026-04-30T06:37:08.926Z</time></trkpt><trkpt lat="40.36890449248008" lon="9.637849002873942"><ele>408.0</ele><time>2026-04-30T06:37:09.926Z</time></trkpt><trkpt lat="40.36897541410158" lon="9.637804790738427"><ele>411.59999999999997</ele><time>2026-04-30T06:37:10.926Z</time></trkpt><trkpt lat="40.36905263728076" lon="9.63775741513643"><ele>415.2</ele><time>2026-04-30T06:37:11.926Z</time></trkpt><trkpt lat="40.3691341007505" lon="9.637707296496862"><ele>418.8</ele><time>2026-04-30T06:37:12.926Z</time></trkpt><trkpt lat="40.36921605153709" lon="9.637655936865112"><ele>422.4</ele><time>2026-04-30T06:37:13.926Z</time></trkpt><trkpt lat="40.36930564910479" lon="9.63759883850105"><ele>426.0</ele><time>2026-04-30T06:37:14.926Z</time></trkpt><trkpt lat="40.36938699492416" lon="9.63753335287159"><ele>426.0</ele><time>2026-04-30T06:37:15.926Z</time></trkpt><trkpt lat="40.36946613793704" lon="9.637465016145637"><ele>426.0</ele><time>2026-04-30T06:37:16.926Z</time></trkpt><trkpt lat="40.369555545105" lon="9.63739901063886"><ele>426.0</ele><time>2026-04-30T06:37:17.925Z</time></trkpt><trkpt lat="40.36963377926781" lon="9.637343861141721"><ele>426.0</ele><time>2026-04-30T06:37:18.925Z</time></trkpt><trkpt lat="40.36971057482887" lon="9.637278317531893"><ele>426.0</ele><time>2026-04-30T06:37:19.925Z</time></trkpt><trkpt lat="40.36976190823165" lon="9.637194815187343"><ele>427.6666666666667</ele><time>2026-04-30T06:37:20.925Z</time></trkpt><trkpt lat="40.36981126026544" lon="9.63710341432416"><ele>429.33333333333337</ele><time>2026-04-30T06:37:21.925Z</time></trkpt><trkpt lat="40.369856342708545" lon="9.637024441851352"><ele>431.0</ele><time>2026-04-30T06:37:22.925Z</time></trkpt><trkpt lat="40.36988827506138" lon="9.636935279189231"><ele>432.6666666666667</ele><time>2026-04-30T06:37:23.925Z</time></trkpt><trkpt lat="40.369931805274625" lon="9.636837367331985"><ele>434.33333333333337</ele><time>2026-04-30T06:37:24.925Z</time></trkpt><trkpt lat="40.36996754450011" lon="9.63675799881487"><ele>436.0</ele><time>2026-04-30T06:37:25.925Z</time></trkpt><trkpt lat="40.37005153480086" lon="9.636661863832524"><ele>436.00000000000006</ele><time>2026-04-30T06:37:27.925Z</time></trkpt><trkpt lat="40.37015132312553" lon="9.636627362606042"><ele>436.0</ele><time>2026-04-30T06:37:29.925Z</time></trkpt><trkpt lat="40.37022283482323" lon="9.636621468853408"><ele>436.0</ele><time>2026-04-30T06:37:30.925Z</time></trkpt><trkpt lat="40.37029755834999" lon="9.636614722038988"><ele>436.0</ele><time>2026-04-30T06:37:31.925Z</time></trkpt><trkpt lat="40.370382663391" lon="9.636609919205418"><ele>436.00000000000006</ele><time>2026-04-30T06:37:32.925Z</time></trkpt><trkpt lat="40.37047075669992" lon="9.636596438060204"><ele>436.0</ele><time>2026-04-30T06:37:33.925Z</time></trkpt><trkpt lat="40.37055949403998" lon="9.63658450771504"><ele>441.00000000000006</ele><time>2026-04-30T06:37:34.925Z</time></trkpt><trkpt lat="40.37065371902103" lon="9.636567503761515"><ele>446.0</ele><time>2026-04-30T06:37:35.925Z</time></trkpt><trkpt lat="40.37074228823543" lon="9.636550506747948"><ele>451.0</ele><time>2026-04-30T06:37:36.925Z</time></trkpt><trkpt lat="40.37083143106361" lon="9.636560052638227"><ele>456.0</ele><time>2026-04-30T06:37:37.925Z</time></trkpt><trkpt lat="40.37091296900315" lon="9.636539517730263"><ele>461.00000000000006</ele><time>2026-04-30T06:37:38.925Z</time></trkpt><trkpt lat="40.370986652531414" lon="9.636494243881858"><ele>466.0</ele><time>2026-04-30T06:37:39.925Z</time></trkpt><trkpt lat="40.371057093687725" lon="9.636453208797224"><ele>466.00000000000006</ele><time>2026-04-30T06:37:40.925Z</time></trkpt><trkpt lat="40.37110536501266" lon="9.636383973083234"><ele>466.0</ele><time>2026-04-30T06:37:41.925Z</time></trkpt><trkpt lat="40.371149124439796" lon="9.636307996524739"><ele>466.0</ele><time>2026-04-30T06:37:42.925Z</time></trkpt><trkpt lat="40.37119365858177" lon="9.636228418311164"><ele>466.0</ele><time>2026-04-30T06:37:43.925Z</time></trkpt><trkpt lat="40.37125309213363" lon="9.6361657032732"><ele>466.00000000000006</ele><time>2026-04-30T06:37:44.925Z</time></trkpt><trkpt lat="40.37132044902383" lon="9.636116839349961"><ele>466.0</ele><time>2026-04-30T06:37:45.925Z</time></trkpt><trkpt lat="40.371396164650044" lon="9.636077262967708"><ele>465.0</ele><time>2026-04-30T06:37:46.925Z</time></trkpt><trkpt lat="40.37148422572538" lon="9.63603743879344"><ele>464.0</ele><time>2026-04-30T06:37:47.925Z</time></trkpt><trkpt lat="40.37157542782599" lon="9.63599862478423"><ele>463.0</ele><time>2026-04-30T06:37:48.925Z</time></trkpt><trkpt lat="40.37166479462208" lon="9.635952902584277"><ele>462.0</ele><time>2026-04-30T06:37:49.925Z</time></trkpt><trkpt lat="40.37174931209839" lon="9.635895470742735"><ele>461.0</ele><time>2026-04-30T06:37:50.925Z</time></trkpt><trkpt lat="40.37182734976613" lon="9.635826443270677"><ele>461.0</ele><time>2026-04-30T06:37:51.925Z</time></trkpt><trkpt lat="40.371905425884115" lon="9.635759851603854"><ele>461.0</ele><time>2026-04-30T06:37:52.925Z</time></trkpt><trkpt lat="40.37199204769971" lon="9.635701925699651"><ele>461.0</ele><time>2026-04-30T06:37:53.925Z</time></trkpt><trkpt lat="40.37207384932043" lon="9.635638309571453"><ele>461.0</ele><time>2026-04-30T06:37:54.925Z</time></trkpt><trkpt lat="40.37215936932844" lon="9.635558526970447"><ele>461.0</ele><time>2026-04-30T06:37:55.925Z</time></trkpt><trkpt lat="40.372245642873665" lon="9.635505542431506"><ele>459.20000000000005</ele><time>2026-04-30T06:37:56.925Z</time></trkpt><trkpt lat="40.37233110453191" lon="9.635440647377468"><ele>457.40000000000003</ele><time>2026-04-30T06:37:57.925Z</time></trkpt><trkpt lat="40.37241890922874" lon="9.635389229572093"><ele>455.6</ele><time>2026-04-30T06:37:58.925Z</time></trkpt><trkpt lat="40.37251782937867" lon="9.635346712448216"><ele>453.8</ele><time>2026-04-30T06:37:59.925Z</time></trkpt><trkpt lat="40.37262704754852" lon="9.635321881569581"><ele>452.0</ele><time>2026-04-30T06:38:00.925Z</time></trkpt><trkpt lat="40.37274009571958" lon="9.63530324320889"><ele>452.0</ele><time>2026-04-30T06:38:01.924Z</time></trkpt><trkpt lat="40.372863899210465" lon="9.635282539012836"><ele>452.0</ele><time>2026-04-30T06:38:02.924Z</time></trkpt><trkpt lat="40.37298626151448" lon="9.635258237621018"><ele>452.0</ele><time>2026-04-30T06:38:03.924Z</time></trkpt><trkpt lat="40.37310919626006" lon="9.635242895967737"><ele>452.0</ele><time>2026-04-30T06:38:04.924Z</time></trkpt><trkpt lat="40.37322662981182" lon="9.635219756513884"><ele>456.0</ele><time>2026-04-30T06:38:05.924Z</time></trkpt><trkpt lat="40.373338630684145" lon="9.635194781780825"><ele>460.0</ele><time>2026-04-30T06:38:06.924Z</time></trkpt><trkpt lat="40.37346240232757" lon="9.635187161303497"><ele>464.0</ele><time>2026-04-30T06:38:07.924Z</time></trkpt><trkpt lat="40.37357974633737" lon="9.635166250691825"><ele>468.0</ele><time>2026-04-30T06:38:08.924Z</time></trkpt><trkpt lat="40.37369806224341" lon="9.635152546070323"><ele>468.0</ele><time>2026-04-30T06:38:09.924Z</time></trkpt><trkpt lat="40.37381183850482" lon="9.635158793346672"><ele>468.0</ele><time>2026-04-30T06:38:10.924Z</time></trkpt><trkpt lat="40.37391445394533" lon="9.635140059751325"><ele>468.0</ele><time>2026-04-30T06:38:11.924Z</time></trkpt><trkpt lat="40.37399905584152" lon="9.63512136104155"><ele>468.0</ele><time>2026-04-30T06:38:12.924Z</time></trkpt><trkpt lat="40.3740719390553" lon="9.635110902740587"><ele>468.0</ele><time>2026-04-30T06:38:13.924Z</time></trkpt><trkpt lat="40.37412053029271" lon="9.635053126167042"><ele>468.0</ele><time>2026-04-30T06:38:14.924Z</time></trkpt><trkpt lat="40.374190886679635" lon="9.634945848224277"><ele>475.5</ele><time>2026-04-30T06:38:16.924Z</time></trkpt><trkpt lat="40.374248234284735" lon="9.634850207535251"><ele>483.0</ele><time>2026-04-30T06:38:18.924Z</time></trkpt><trkpt lat="40.37435053341004" lon="9.634877320134972"><ele>490.5</ele><time>2026-04-30T06:38:22.924Z</time></trkpt><trkpt lat="40.37424343761172" lon="9.634997626320068"><ele>498.0</ele><time>2026-04-30T06:38:24.924Z</time></trkpt><trkpt lat="40.374179368156355" lon="9.635167676710102"><ele>498.0</ele><time>2026-04-30T06:38:26.924Z</time></trkpt><trkpt lat="40.374139063598435" lon="9.635269157375275"><ele>497.99999999999994</ele><time>2026-04-30T06:38:27.924Z</time></trkpt><trkpt lat="40.374090268962085" lon="9.635340827185535"><ele>497.99999999999994</ele><time>2026-04-30T06:38:28.924Z</time></trkpt><trkpt lat="40.37403625081206" lon="9.635405701191704"><ele>498.0</ele><time>2026-04-30T06:38:29.924Z</time></trkpt><trkpt lat="40.37397178779759" lon="9.635509586278479"><ele>498.0</ele><time>2026-04-30T06:38:31.924Z</time></trkpt><trkpt lat="40.37411050932752" lon="9.635579357500996"><ele>498.0</ele><time>2026-04-30T06:38:35.924Z</time></trkpt><trkpt lat="40.3741791021705" lon="9.635553585604114"><ele>498.0</ele><time>2026-04-30T06:38:36.924Z</time></trkpt><trkpt lat="40.37423815284241" lon="9.635506618647915"><ele>498.0</ele><time>2026-04-30T06:38:37.924Z</time></trkpt><trkpt lat="40.374299338975455" lon="9.635445811825448"><ele>498.0</ele><time>2026-04-30T06:38:38.924Z</time></trkpt><trkpt lat="40.37437179764987" lon="9.635390881182346"><ele>498.0</ele><time>2026-04-30T06:38:39.924Z</time></trkpt><trkpt lat="40.37442488652849" lon="9.635313878826027"><ele>498.0</ele><time>2026-04-30T06:38:40.924Z</time></trkpt><trkpt lat="40.374489219314604" lon="9.635251326832599"><ele>498.0</ele><time>2026-04-30T06:38:41.924Z</time></trkpt><trkpt lat="40.37455765830657" lon="9.63520365589748"><ele>497.99999999999994</ele><time>2026-04-30T06:38:42.924Z</time></trkpt><trkpt lat="40.37457672620275" lon="9.635123514680549"><ele>497.99999999999994</ele><time>2026-04-30T06:38:43.924Z</time></trkpt><trkpt lat="40.374549134049644" lon="9.63533966025166"><ele>498.0</ele><time>2026-04-30T06:38:50.923Z</time></trkpt><trkpt lat="40.37449502964924" lon="9.635443809104013"><ele>498.0</ele><time>2026-04-30T06:38:52.923Z</time></trkpt><trkpt lat="40.37463699948527" lon="9.635432215896582"><ele>503.3333333333333</ele><time>2026-04-30T06:38:56.923Z</time></trkpt><trkpt lat="40.37467864939943" lon="9.635366647149432"><ele>508.66666666666663</ele><time>2026-04-30T06:38:57.923Z</time></trkpt><trkpt lat="40.37472015040198" lon="9.635292196365944"><ele>514.0</ele><time>2026-04-30T06:38:58.923Z</time></trkpt><trkpt lat="40.37476096156617" lon="9.63520168969402"><ele>519.3333333333333</ele><time>2026-04-30T06:38:59.922Z</time></trkpt><trkpt lat="40.37479353491284" lon="9.635109763290318"><ele>524.6666666666666</ele><time>2026-04-30T06:39:00.922Z</time></trkpt><trkpt lat="40.374802811825354" lon="9.635004677121051"><ele>530.0</ele><time>2026-04-30T06:39:02.923Z</time></trkpt><trkpt lat="40.37487119393392" lon="9.635094677860351"><ele>530.0</ele><time>2026-04-30T06:39:05.922Z</time></trkpt><trkpt lat="40.37484247718418" lon="9.635267095142828"><ele>530.0</ele><time>2026-04-30T06:39:07.922Z</time></trkpt><trkpt lat="40.374823817673224" lon="9.635359290223914"><ele>530.0</ele><time>2026-04-30T06:39:08.922Z</time></trkpt><trkpt lat="40.374793723616015" lon="9.635450218711458"><ele>530.0</ele><time>2026-04-30T06:39:09.922Z</time></trkpt><trkpt lat="40.374770530625646" lon="9.63554256004472"><ele>530.0</ele><time>2026-04-30T06:39:11.922Z</time></trkpt><trkpt lat="40.37485004940876" lon="9.635603942965272"><ele>530.0</ele><time>2026-04-30T06:39:14.922Z</time></trkpt><trkpt lat="40.374904718677115" lon="9.635559411193613"><ele>530.0</ele><time>2026-04-30T06:39:15.922Z</time></trkpt><trkpt lat="40.374931904003496" lon="9.635469094357504"><ele>530.0</ele><time>2026-04-30T06:39:16.922Z</time></trkpt><trkpt lat="40.37496223228195" lon="9.635377292498971"><ele>530.0</ele><time>2026-04-30T06:39:17.922Z</time></trkpt><trkpt lat="40.37499016455701" lon="9.635281636657854"><ele>530.0</ele><time>2026-04-30T06:39:18.922Z</time></trkpt><trkpt lat="40.375019678268146" lon="9.635173571354708"><ele>530.0</ele><time>2026-04-30T06:39:19.922Z</time></trkpt><trkpt lat="40.3750500360868" lon="9.635071653258166"><ele>530.0</ele><time>2026-04-30T06:39:20.922Z</time></trkpt><trkpt lat="40.375075752957514" lon="9.634990595053559"><ele>530.0</ele><time>2026-04-30T06:39:21.922Z</time></trkpt><trkpt lat="40.375120463605434" lon="9.634882607438144"><ele>530.0</ele><time>2026-04-30T06:39:22.922Z</time></trkpt><trkpt lat="40.375179320435294" lon="9.634811744680436"><ele>530.0</ele><time>2026-04-30T06:39:23.922Z</time></trkpt><trkpt lat="40.37511287293376" lon="9.63527860494181"><ele>533.8333333333333</ele><time>2026-04-30T06:39:28.922Z</time></trkpt><trkpt lat="40.375119638484925" lon="9.635378067300811"><ele>537.6666666666666</ele><time>2026-04-30T06:39:29.922Z</time></trkpt><trkpt lat="40.375128990445255" lon="9.635480928492415"><ele>541.5</ele><time>2026-04-30T06:39:30.922Z</time></trkpt><trkpt lat="40.37514256655742" lon="9.63558655364449"><ele>545.3333333333334</ele><time>2026-04-30T06:39:31.922Z</time></trkpt><trkpt lat="40.37516988602875" lon="9.63566607172181"><ele>549.1666666666667</ele><time>2026-04-30T06:39:32.922Z</time></trkpt><trkpt lat="40.375186282373996" lon="9.63575184402635"><ele>553.0</ele><time>2026-04-30T06:39:34.922Z</time></trkpt><trkpt lat="40.375259945040376" lon="9.635683855984325"><ele>553.0</ele><time>2026-04-30T06:39:36.922Z</time></trkpt><trkpt lat="40.375289973506085" lon="9.63555959037135"><ele>553.0</ele><time>2026-04-30T06:39:38.922Z</time></trkpt><trkpt lat="40.37532821929165" lon="9.635398658932914"><ele>553.0</ele><time>2026-04-30T06:39:40.922Z</time></trkpt><trkpt lat="40.37535248430368" lon="9.635295726092766"><ele>553.0</ele><time>2026-04-30T06:39:41.922Z</time></trkpt><trkpt lat="40.37534828165442" lon="9.635181021539845"><ele>553.0</ele><time>2026-04-30T06:39:42.922Z</time></trkpt><trkpt lat="40.375373938584175" lon="9.635086040807527"><ele>553.0</ele><time>2026-04-30T06:39:43.922Z</time></trkpt><trkpt lat="40.37538603540036" lon="9.634991410731882"><ele>553.0</ele><time>2026-04-30T06:39:45.922Z</time></trkpt><trkpt lat="40.375444789511555" lon="9.635027219840334"><ele>553.0</ele><time>2026-04-30T06:39:47.922Z</time></trkpt><trkpt lat="40.375428125403545" lon="9.635124787970952"><ele>553.0</ele><time>2026-04-30T06:39:49.921Z</time></trkpt><trkpt lat="40.375425424741096" lon="9.635296885169407"><ele>553.0</ele><time>2026-04-30T06:39:51.921Z</time></trkpt><trkpt lat="40.37543094356446" lon="9.63540178490181"><ele>553.0</ele><time>2026-04-30T06:39:52.921Z</time></trkpt><trkpt lat="40.375424345212814" lon="9.635533593385652"><ele>553.0</ele><time>2026-04-30T06:39:53.921Z</time></trkpt><trkpt lat="40.37543729960473" lon="9.635674816138843"><ele>553.0</ele><time>2026-04-30T06:39:54.921Z</time></trkpt><trkpt lat="40.375432327905784" lon="9.635806758153507"><ele>553.0</ele><time>2026-04-30T06:39:55.921Z</time></trkpt><trkpt lat="40.37543424707963" lon="9.635917106185314"><ele>553.0</ele><time>2026-04-30T06:39:56.921Z</time></trkpt><trkpt lat="40.375425110795156" lon="9.636001930558727"><ele>553.0</ele><time>2026-04-30T06:39:57.921Z</time></trkpt><trkpt lat="40.37558874989804" lon="9.635952811112464"><ele>558.1666666666667</ele><time>2026-04-30T06:40:03.921Z</time></trkpt><trkpt lat="40.37560643853712" lon="9.635837361014568"><ele>563.3333333333334</ele><time>2026-04-30T06:40:04.921Z</time></trkpt><trkpt lat="40.37562806013758" lon="9.63575052844185"><ele>568.5</ele><time>2026-04-30T06:40:05.921Z</time></trkpt><trkpt lat="40.37564785367273" lon="9.635652324990012"><ele>573.6666666666666</ele><time>2026-04-30T06:40:06.921Z</time></trkpt><trkpt lat="40.375664824077994" lon="9.635568562465847"><ele>578.8333333333333</ele><time>2026-04-30T06:40:07.921Z</time></trkpt><trkpt lat="40.37568105394415" lon="9.635469328654722"><ele>584.0</ele><time>2026-04-30T06:40:10.921Z</time></trkpt><trkpt lat="40.37571494071275" lon="9.63558786180833"><ele>584.0</ele><time>2026-04-30T06:40:12.921Z</time></trkpt><trkpt lat="40.37570642155157" lon="9.63572282252237"><ele>584.0</ele><time>2026-04-30T06:40:14.921Z</time></trkpt><trkpt lat="40.37571113314609" lon="9.635841856413665"><ele>584.0</ele><time>2026-04-30T06:40:15.921Z</time></trkpt><trkpt lat="40.37571110220857" lon="9.635951068723818"><ele>584.0</ele><time>2026-04-30T06:40:16.921Z</time></trkpt><trkpt lat="40.37571343614834" lon="9.636060454799466"><ele>584.0</ele><time>2026-04-30T06:40:17.921Z</time></trkpt><trkpt lat="40.375695427535334" lon="9.636159506142272"><ele>584.0</ele><time>2026-04-30T06:40:18.921Z</time></trkpt><trkpt lat="40.375681381572655" lon="9.636292790286712"><ele>584.0</ele><time>2026-04-30T06:40:20.921Z</time></trkpt><trkpt lat="40.37573316255992" lon="9.636372087709816"><ele>584.0</ele><time>2026-04-30T06:40:23.921Z</time></trkpt><trkpt lat="40.37581544687874" lon="9.636368334456401"><ele>584.0</ele><time>2026-04-30T06:40:25.921Z</time></trkpt><trkpt lat="40.375870888840325" lon="9.63628504666922"><ele>584.0</ele><time>2026-04-30T06:40:26.921Z</time></trkpt><trkpt lat="40.37586185303283" lon="9.63615843342608"><ele>584.0</ele><time>2026-04-30T06:40:27.921Z</time></trkpt><trkpt lat="40.375885594952706" lon="9.636055257527842"><ele>584.0</ele><time>2026-04-30T06:40:28.921Z</time></trkpt><trkpt lat="40.37590057317449" lon="9.635954608764449"><ele>584.0</ele><time>2026-04-30T06:40:29.921Z</time></trkpt><trkpt lat="40.37593844441943" lon="9.635840227462703"><ele>584.0</ele><time>2026-04-30T06:40:31.921Z</time></trkpt><trkpt lat="40.37598052124111" lon="9.635776582363123"><ele>584.0</ele><time>2026-04-30T06:40:33.92Z</time></trkpt><trkpt lat="40.37600241777958" lon="9.635906078398977"><ele>584.0</ele><time>2026-04-30T06:40:36.92Z</time></trkpt><trkpt lat="40.37600413622114" lon="9.63600622544353"><ele>584.0</ele><time>2026-04-30T06:40:37.92Z</time></trkpt><trkpt lat="40.37600169926214" lon="9.636109144198839"><ele>584.0</ele><time>2026-04-30T06:40:38.92Z</time></trkpt><trkpt lat="40.3760067109229" lon="9.63619158720707"><ele>586.5</ele><time>2026-04-30T06:40:39.92Z</time></trkpt><trkpt lat="40.3760156703741" lon="9.636311380573048"><ele>589.0</ele><time>2026-04-30T06:40:40.92Z</time></trkpt><trkpt lat="40.376027217155325" lon="9.63641143496987"><ele>591.5</ele><time>2026-04-30T06:40:41.92Z</time></trkpt><trkpt lat="40.37603559576884" lon="9.636501605834843"><ele>594.0</ele><time>2026-04-30T06:40:42.92Z</time></trkpt><trkpt lat="40.376005726535254" lon="9.636668788823606"><ele>596.5</ele><time>2026-04-30T06:40:44.92Z</time></trkpt><trkpt lat="40.37596869563845" lon="9.636750262485494"><ele>599.0</ele><time>2026-04-30T06:40:45.92Z</time></trkpt><trkpt lat="40.37592469454839" lon="9.636828536946895"><ele>599.0</ele><time>2026-04-30T06:40:46.92Z</time></trkpt><trkpt lat="40.375880369017175" lon="9.636895536493107"><ele>599.0</ele><time>2026-04-30T06:40:47.92Z</time></trkpt><trkpt lat="40.37583533599894" lon="9.636965713589252"><ele>599.0</ele><time>2026-04-30T06:40:49.92Z</time></trkpt><trkpt lat="40.375899369285854" lon="9.637022264948788"><ele>599.0</ele><time>2026-04-30T06:40:51.92Z</time></trkpt><trkpt lat="40.37603022743438" lon="9.637009917007454"><ele>599.0</ele><time>2026-04-30T06:40:55.92Z</time></trkpt><trkpt lat="40.37610785839267" lon="9.636988850924235"><ele>599.0</ele><time>2026-04-30T06:40:56.92Z</time></trkpt><trkpt lat="40.37617893137746" lon="9.636957249475612"><ele>599.0</ele><time>2026-04-30T06:40:57.92Z</time></trkpt><trkpt lat="40.376253778602155" lon="9.636944957488828"><ele>599.0</ele><time>2026-04-30T06:40:58.919Z</time></trkpt><trkpt lat="40.37635909306932" lon="9.636848912867325"><ele>599.0</ele><time>2026-04-30T06:41:00.919Z</time></trkpt><trkpt lat="40.37642635433267" lon="9.636730333333363"><ele>599.0</ele><time>2026-04-30T06:41:02.918Z</time></trkpt><trkpt lat="40.37645630847632" lon="9.636640565326068"><ele>599.0</ele><time>2026-04-30T06:41:03.918Z</time></trkpt><trkpt lat="40.37653364127649" lon="9.636491796878444"><ele>603.0</ele><time>2026-04-30T06:41:05.919Z</time></trkpt><trkpt lat="40.37658436577311" lon="9.636414848413098"><ele>607.0</ele><time>2026-04-30T06:41:06.919Z</time></trkpt><trkpt lat="40.37664463881481" lon="9.636322858337412"><ele>611.0</ele><time>2026-04-30T06:41:08.919Z</time></trkpt><trkpt lat="40.37671122478478" lon="9.636368619043195"><ele>615.0</ele><time>2026-04-30T06:41:10.919Z</time></trkpt><trkpt lat="40.3766948549968" lon="9.636492445653191"><ele>619.0</ele><time>2026-04-30T06:41:12.919Z</time></trkpt><trkpt lat="40.37665785543013" lon="9.636567634633119"><ele>623.0</ele><time>2026-04-30T06:41:13.919Z</time></trkpt><trkpt lat="40.37664165556767" lon="9.636658387553444"><ele>623.0</ele><time>2026-04-30T06:41:14.919Z</time></trkpt><trkpt lat="40.37662131719267" lon="9.636786748427003"><ele>623.0</ele><time>2026-04-30T06:41:15.919Z</time></trkpt><trkpt lat="40.376592130701646" lon="9.63691355524093"><ele>623.0</ele><time>2026-04-30T06:41:16.918Z</time></trkpt><trkpt lat="40.37656827511032" lon="9.637036302918514"><ele>623.0</ele><time>2026-04-30T06:41:17.918Z</time></trkpt><trkpt lat="40.376552312415214" lon="9.637135775874054"><ele>623.0</ele><time>2026-04-30T06:41:18.918Z</time></trkpt><trkpt lat="40.37648722365236" lon="9.637200583160078"><ele>626.1666666666666</ele><time>2026-04-30T06:41:19.918Z</time></trkpt><trkpt lat="40.37642943201123" lon="9.637286272076608"><ele>629.3333333333333</ele><time>2026-04-30T06:41:20.918Z</time></trkpt><trkpt lat="40.37639307405433" lon="9.637382204424902"><ele>632.5</ele><time>2026-04-30T06:41:21.918Z</time></trkpt><trkpt lat="40.376372536377396" lon="9.637463636517813"><ele>635.6666666666666</ele><time>2026-04-30T06:41:22.918Z</time></trkpt><trkpt lat="40.376391417932034" lon="9.637622608915292"><ele>638.8333333333334</ele><time>2026-04-30T06:41:24.918Z</time></trkpt><trkpt lat="40.376405285085546" lon="9.6377263903763"><ele>642.0</ele><time>2026-04-30T06:41:25.918Z</time></trkpt><trkpt lat="40.376413169013176" lon="9.637835257789119"><ele>643.8</ele><time>2026-04-30T06:41:26.918Z</time></trkpt><trkpt lat="40.37641465915389" lon="9.637955473493545"><ele>645.6</ele><time>2026-04-30T06:41:27.918Z</time></trkpt><trkpt lat="40.37640335721636" lon="9.638068091959147"><ele>647.4</ele><time>2026-04-30T06:41:28.918Z</time></trkpt><trkpt lat="40.376378680091655" lon="9.6381743884568"><ele>649.1999999999999</ele><time>2026-04-30T06:41:29.918Z</time></trkpt><trkpt lat="40.37641627942389" lon="9.638272239064285"><ele>651.0</ele><time>2026-04-30T06:41:32.918Z</time></trkpt><trkpt lat="40.3765284349945" lon="9.63821717115955"><ele>651.0</ele><time>2026-04-30T06:41:35.918Z</time></trkpt><trkpt lat="40.3765296201246" lon="9.638114435276995"><ele>651.0</ele><time>2026-04-30T06:41:36.918Z</time></trkpt><trkpt lat="40.37655394355559" lon="9.638014197631886"><ele>651.0</ele><time>2026-04-30T06:41:37.918Z</time></trkpt><trkpt lat="40.376605379257136" lon="9.63791439362817"><ele>651.0</ele><time>2026-04-30T06:41:39.918Z</time></trkpt><trkpt lat="40.37667100698765" lon="9.63794792368032"><ele>651.0</ele><time>2026-04-30T06:41:41.918Z</time></trkpt><trkpt lat="40.376674525648035" lon="9.638045814604785"><ele>651.0</ele><time>2026-04-30T06:41:43.918Z</time></trkpt><trkpt lat="40.376656840828375" lon="9.63819938148643"><ele>651.0</ele><time>2026-04-30T06:41:45.918Z</time></trkpt><trkpt lat="40.37663520489335" lon="9.63837096223481"><ele>651.0</ele><time>2026-04-30T06:41:47.918Z</time></trkpt><trkpt lat="40.376631698830224" lon="9.638468046267725"><ele>651.0</ele><time>2026-04-30T06:41:48.918Z</time></trkpt><trkpt lat="40.37664105745774" lon="9.638557859788351"><ele>651.0</ele><time>2026-04-30T06:41:49.918Z</time></trkpt><trkpt lat="40.376693790638775" lon="9.638642368636168"><ele>651.0</ele><time>2026-04-30T06:41:51.918Z</time></trkpt><trkpt lat="40.37678744338134" lon="9.638622408069256"><ele>651.0</ele><time>2026-04-30T06:41:53.918Z</time></trkpt><trkpt lat="40.37682327241088" lon="9.638503362061883"><ele>651.0</ele><time>2026-04-30T06:41:54.918Z</time></trkpt><trkpt lat="40.37687105441004" lon="9.63842310167258"><ele>651.0</ele><time>2026-04-30T06:41:55.918Z</time></trkpt><trkpt lat="40.3769265306976" lon="9.638366064658973"><ele>651.0</ele><time>2026-04-30T06:41:56.918Z</time></trkpt><trkpt lat="40.37696783214111" lon="9.63830317476181"><ele>651.0</ele><time>2026-04-30T06:41:57.918Z</time></trkpt><trkpt lat="40.37701452865373" lon="9.638243960784955"><ele>651.0</ele><time>2026-04-30T06:41:58.918Z</time></trkpt><trkpt lat="40.37707698462989" lon="9.638188343028542"><ele>651.0</ele><time>2026-04-30T06:42:00.917Z</time></trkpt><trkpt lat="40.37709166393246" lon="9.638285326088898"><ele>651.0</ele><time>2026-04-30T06:42:04.917Z</time></trkpt><trkpt lat="40.37706695089236" lon="9.638385701829728"><ele>651.0</ele><time>2026-04-30T06:42:05.917Z</time></trkpt><trkpt lat="40.37703314209612" lon="9.638502240806869"><ele>651.0</ele><time>2026-04-30T06:42:06.917Z</time></trkpt><trkpt lat="40.377001674227074" lon="9.638611204116376"><ele>651.0</ele><time>2026-04-30T06:42:07.917Z</time></trkpt><trkpt lat="40.376970544819976" lon="9.638704113447425"><ele>651.0</ele><time>2026-04-30T06:42:08.917Z</time></trkpt><trkpt lat="40.37694224369696" lon="9.638781399557622"><ele>651.0</ele><time>2026-04-30T06:42:09.917Z</time></trkpt><trkpt lat="40.376967350490624" lon="9.638874673277236"><ele>655.0</ele><time>2026-04-30T06:42:12.917Z</time></trkpt><trkpt lat="40.37708854530198" lon="9.638866505384504"><ele>659.0</ele><time>2026-04-30T06:42:15.917Z</time></trkpt><trkpt lat="40.377144912779706" lon="9.638819958514867"><ele>663.0</ele><time>2026-04-30T06:42:16.917Z</time></trkpt><trkpt lat="40.37724900561429" lon="9.638762777692355"><ele>667.0</ele><time>2026-04-30T06:42:18.917Z</time></trkpt><trkpt lat="40.37735226881438" lon="9.63872394508006"><ele>671.0</ele><time>2026-04-30T06:42:20.917Z</time></trkpt><trkpt lat="40.37730892419404" lon="9.63891781903145"><ele>671.0</ele><time>2026-04-30T06:42:28.917Z</time></trkpt><trkpt lat="40.37726829444148" lon="9.639009910482777"><ele>671.0</ele><time>2026-04-30T06:42:29.917Z</time></trkpt><trkpt lat="40.37722667013897" lon="9.639103486847496"><ele>671.0</ele><time>2026-04-30T06:42:30.917Z</time></trkpt><trkpt lat="40.37717979179266" lon="9.639182309285706"><ele>671.0</ele><time>2026-04-30T06:42:31.917Z</time></trkpt><trkpt lat="40.37712982522132" lon="9.63923515320841"><ele>671.0</ele><time>2026-04-30T06:42:32.917Z</time></trkpt><trkpt lat="40.37707438713762" lon="9.639285661586975"><ele>671.0</ele><time>2026-04-30T06:42:34.917Z</time></trkpt><trkpt lat="40.376965921216765" lon="9.639410075650945"><ele>679.0</ele><time>2026-04-30T06:42:44.916Z</time></trkpt><trkpt lat="40.37688177877824" lon="9.63950308929755"><ele>687.0</ele><time>2026-04-30T06:42:45.916Z</time></trkpt><trkpt lat="40.377647264091024" lon="9.639294074081219"><ele>687.0</ele><time>2026-04-30T06:42:46.916Z</time></trkpt><trkpt lat="40.3777305645897" lon="9.639274314907519"><ele>687.0</ele><time>2026-04-30T06:42:47.916Z</time></trkpt><trkpt lat="40.377815814700185" lon="9.63923931710277"><ele>687.0</ele><time>2026-04-30T06:42:48.916Z</time></trkpt><trkpt lat="40.37789831738854" lon="9.639213175111363"><ele>687.0</ele><time>2026-04-30T06:42:49.916Z</time></trkpt><trkpt lat="40.37798507211379" lon="9.639189164758129"><ele>687.0</ele><time>2026-04-30T06:42:50.916Z</time></trkpt><trkpt lat="40.3780789805214" lon="9.639165902893165"><ele>687.0</ele><time>2026-04-30T06:42:51.916Z</time></trkpt><trkpt lat="40.37817957230151" lon="9.639138979105761"><ele>691.4000000000001</ele><time>2026-04-30T06:42:52.916Z</time></trkpt><trkpt lat="40.3782858896144" lon="9.639116407500698"><ele>695.8000000000001</ele><time>2026-04-30T06:42:53.916Z</time></trkpt><trkpt lat="40.378390405701886" lon="9.639096844236494"><ele>700.2</ele><time>2026-04-30T06:42:54.916Z</time></trkpt><trkpt lat="40.37849681614782" lon="9.639078496244421"><ele>704.6</ele><time>2026-04-30T06:42:55.916Z</time></trkpt><trkpt lat="40.37860354924827" lon="9.63906070963351"><ele>709.0</ele><time>2026-04-30T06:42:56.916Z</time></trkpt><trkpt lat="40.37870405415269" lon="9.63904228853402"><ele>709.0</ele><time>2026-04-30T06:42:57.916Z</time></trkpt><trkpt lat="40.37880073391657" lon="9.639052886132045"><ele>709.0</ele><time>2026-04-30T06:42:58.916Z</time></trkpt><trkpt lat="40.37888149022235" lon="9.639014503169612"><ele>709.0</ele><time>2026-04-30T06:42:59.916Z</time></trkpt><trkpt lat="40.37896912737547" lon="9.63896745097026"><ele>709.0</ele><time>2026-04-30T06:43:01.916Z</time></trkpt><trkpt lat="40.379016344541846" lon="9.638909601903205"><ele>709.0</ele><time>2026-04-30T06:43:02.916Z</time></trkpt><trkpt lat="40.379062749604266" lon="9.638848783228145"><ele>709.0</ele><time>2026-04-30T06:43:03.916Z</time></trkpt><trkpt lat="40.37911122809252" lon="9.638784573878358"><ele>711.8000000000001</ele><time>2026-04-30T06:43:04.915Z</time></trkpt><trkpt lat="40.37919409487942" lon="9.638757977017859"><ele>714.6</ele><time>2026-04-30T06:43:06.915Z</time></trkpt><trkpt lat="40.37921476826396" lon="9.638878679928386"><ele>717.4</ele><time>2026-04-30T06:44:42.913Z</time></trkpt><trkpt lat="40.379204851707684" lon="9.639033677849302"><ele>720.2</ele><time>2026-04-30T06:44:44.913Z</time></trkpt><trkpt lat="40.37919550022352" lon="9.639180131413294"><ele>723.0</ele><time>2026-04-30T06:44:46.913Z</time></trkpt><trkpt lat="40.37921437528736" lon="9.639319798054373"><ele>723.0</ele><time>2026-04-30T06:44:48.913Z</time></trkpt><trkpt lat="40.37927449199125" lon="9.639417908290618"><ele>723.0</ele><time>2026-04-30T06:44:50.913Z</time></trkpt><trkpt lat="40.37934699568529" lon="9.639424596980755"><ele>723.0</ele><time>2026-04-30T06:44:51.913Z</time></trkpt><trkpt lat="40.37942482917739" lon="9.63950243371978"><ele>723.0</ele><time>2026-04-30T06:44:53.913Z</time></trkpt><trkpt lat="40.37948139384505" lon="9.639552579545922"><ele>723.0</ele><time>2026-04-30T06:44:55.912Z</time></trkpt><trkpt lat="40.37951521755787" lon="9.639628583361091"><ele>723.0</ele><time>2026-04-30T06:44:58.912Z</time></trkpt><trkpt lat="40.37952892373238" lon="9.63971172232234"><ele>722.6666666666666</ele><time>2026-04-30T06:45:08.912Z</time></trkpt><trkpt lat="40.37950057466201" lon="9.639793978999991"><ele>722.3333333333334</ele><time>2026-04-30T06:45:10.911Z</time></trkpt><trkpt lat="40.379469803223806" lon="9.63986916501852"><ele>722.0</ele><time>2026-04-30T06:45:12.911Z</time></trkpt><trkpt lat="40.37947177039771" lon="9.639981279523656"><ele>721.6666666666667</ele><time>2026-04-30T06:45:14.911Z</time></trkpt><trkpt lat="40.37946887120343" lon="9.640092692853292"><ele>721.3333333333334</ele><time>2026-04-30T06:45:16.911Z</time></trkpt><trkpt lat="40.37945031901982" lon="9.640224469759366"><ele>721.0</ele><time>2026-04-30T06:45:18.912Z</time></trkpt><trkpt lat="40.379438188961345" lon="9.6403593824242"><ele>719.4</ele><time>2026-04-30T06:45:20.911Z</time></trkpt><trkpt lat="40.37940919588851" lon="9.640468078712798"><ele>717.8</ele><time>2026-04-30T06:45:22.911Z</time></trkpt><trkpt lat="40.37940598803994" lon="9.640579432763264"><ele>716.1999999999999</ele><time>2026-04-30T06:45:24.911Z</time></trkpt><trkpt lat="40.37942151871171" lon="9.640695127787549"><ele>714.5999999999999</ele><time>2026-04-30T06:45:26.911Z</time></trkpt><trkpt lat="40.379446278959435" lon="9.640821425625996"><ele>713.0</ele><time>2026-04-30T06:45:28.911Z</time></trkpt><trkpt lat="40.37950084606426" lon="9.640923839753242"><ele>713.0</ele><time>2026-04-30T06:45:30.911Z</time></trkpt><trkpt lat="40.37955415206599" lon="9.640996145331743"><ele>713.0</ele><time>2026-04-30T06:45:32.911Z</time></trkpt><trkpt lat="40.37958304408864" lon="9.641091528633302"><ele>713.0</ele><time>2026-04-30T06:45:34.911Z</time></trkpt><trkpt lat="40.379655342941426" lon="9.64114396532699"><ele>713.0</ele><time>2026-04-30T06:45:37.911Z</time></trkpt><trkpt lat="40.379707122648355" lon="9.641071728361835"><ele>713.0</ele><time>2026-04-30T06:45:40.911Z</time></trkpt><trkpt lat="40.379718489452934" lon="9.640972255697232"><ele>713.0</ele><time>2026-04-30T06:45:42.911Z</time></trkpt><trkpt lat="40.3797451808687" lon="9.640877783555494"><ele>712.0</ele><time>2026-04-30T06:45:44.911Z</time></trkpt><trkpt lat="40.37979168514656" lon="9.640811617290352"><ele>711.0</ele><time>2026-04-30T06:45:46.91Z</time></trkpt><trkpt lat="40.37987888927627" lon="9.640779241824273"><ele>710.0</ele><time>2026-04-30T06:45:49.91Z</time></trkpt><trkpt lat="40.37993691075128" lon="9.640878126877736"><ele>709.0</ele><time>2026-04-30T06:45:52.91Z</time></trkpt><trkpt lat="40.37999825045235" lon="9.640959380363272"><ele>708.0</ele><time>2026-04-30T06:45:54.91Z</time></trkpt><trkpt lat="40.380048111543346" lon="9.6410175752714"><ele>707.0</ele><time>2026-04-30T06:45:55.91Z</time></trkpt><trkpt lat="40.38010865606566" lon="9.641074960546355"><ele>707.0</ele><time>2026-04-30T06:45:57.91Z</time></trkpt><trkpt lat="40.38016204647687" lon="9.641123771818119"><ele>707.0</ele><time>2026-04-30T06:45:59.91Z</time></trkpt><trkpt lat="40.38019914630433" lon="9.641195651523077"><ele>707.0</ele><time>2026-04-30T06:46:01.91Z</time></trkpt><trkpt lat="40.380227348905535" lon="9.641296904082296"><ele>707.0</ele><time>2026-04-30T06:46:03.91Z</time></trkpt><trkpt lat="40.38024867911999" lon="9.64139054276153"><ele>707.0</ele><time>2026-04-30T06:46:05.91Z</time></trkpt><trkpt lat="40.38027199716823" lon="9.641522960968368"><ele>707.0</ele><time>2026-04-30T06:46:07.91Z</time></trkpt><trkpt lat="40.38031168327757" lon="9.641666252167157"><ele>703.4000000000001</ele><time>2026-04-30T06:46:09.91Z</time></trkpt><trkpt lat="40.38035259232972" lon="9.641748087253553"><ele>699.8000000000001</ele><time>2026-04-30T06:46:10.91Z</time></trkpt><trkpt lat="40.38038333819568" lon="9.641828457828382"><ele>696.2</ele><time>2026-04-30T06:46:11.91Z</time></trkpt><trkpt lat="40.38043135565395" lon="9.641957084506359"><ele>692.6</ele><time>2026-04-30T06:46:13.91Z</time></trkpt><trkpt lat="40.38046829141405" lon="9.642071313224788"><ele>689.0</ele><time>2026-04-30T06:46:15.91Z</time></trkpt><trkpt lat="40.38049312696848" lon="9.642221055485647"><ele>688.2</ele><time>2026-04-30T06:46:17.91Z</time></trkpt><trkpt lat="40.380542501751435" lon="9.642333205724631"><ele>687.4000000000001</ele><time>2026-04-30T06:46:19.91Z</time></trkpt><trkpt lat="40.38061337626755" lon="9.642434283765965"><ele>686.6</ele><time>2026-04-30T06:46:21.91Z</time></trkpt><trkpt lat="40.38068600060608" lon="9.642527866538657"><ele>685.8</ele><time>2026-04-30T06:46:23.91Z</time></trkpt><trkpt lat="40.38075248520671" lon="9.642598629653609"><ele>685.0</ele><time>2026-04-30T06:46:25.91Z</time></trkpt><trkpt lat="40.380784230761094" lon="9.6427266493601"><ele>683.3333333333334</ele><time>2026-04-30T06:46:27.91Z</time></trkpt><trkpt lat="40.38079175430288" lon="9.642821047362911"><ele>681.6666666666667</ele><time>2026-04-30T06:46:28.91Z</time></trkpt><trkpt lat="40.38079286974029" lon="9.642916285747042"><ele>680.0</ele><time>2026-04-30T06:46:29.909Z</time></trkpt><trkpt lat="40.38080117825825" lon="9.643053048859185"><ele>678.3333333333334</ele><time>2026-04-30T06:46:31.909Z</time></trkpt><trkpt lat="40.38083128255938" lon="9.643195866147305"><ele>676.6666666666666</ele><time>2026-04-30T06:46:33.909Z</time></trkpt><trkpt lat="40.38084668551796" lon="9.643294574735384"><ele>675.0</ele><time>2026-04-30T06:46:35.909Z</time></trkpt><trkpt lat="40.38091418961775" lon="9.643315283336308"><ele>675.0</ele><time>2026-04-30T06:46:37.909Z</time></trkpt><trkpt lat="40.38101210739019" lon="9.643287261069263"><ele>675.0</ele><time>2026-04-30T06:46:39.909Z</time></trkpt><trkpt lat="40.38111309771798" lon="9.643265863893594"><ele>675.0</ele><time>2026-04-30T06:46:41.909Z</time></trkpt><trkpt lat="40.38117998907695" lon="9.643267671182985"><ele>675.0</ele><time>2026-04-30T06:46:42.909Z</time></trkpt><trkpt lat="40.38124571598698" lon="9.643277971726935"><ele>675.0</ele><time>2026-04-30T06:46:43.909Z</time></trkpt><trkpt lat="40.38136056597018" lon="9.64329957471398"><ele>677.1666666666666</ele><time>2026-04-30T06:46:45.909Z</time></trkpt><trkpt lat="40.38144334239902" lon="9.643361683842953"><ele>679.3333333333334</ele><time>2026-04-30T06:46:47.908Z</time></trkpt><trkpt lat="40.381453942162715" lon="9.643456899858432"><ele>681.5</ele><time>2026-04-30T06:46:49.907Z</time></trkpt><trkpt lat="40.38145677676866" lon="9.64356914499422"><ele>683.6666666666667</ele><time>2026-04-30T06:46:52.906Z</time></trkpt><trkpt lat="40.381487946396476" lon="9.643690397960889"><ele>685.8333333333334</ele><time>2026-04-30T06:46:55.905Z</time></trkpt><trkpt lat="40.38150290330322" lon="9.643787842598293"><ele>688.0</ele><time>2026-04-30T06:46:57.905Z</time></trkpt><trkpt lat="40.3814919465464" lon="9.64386956266846"><ele>688.0</ele><time>2026-04-30T06:46:59.904Z</time></trkpt><trkpt lat="40.381502488118755" lon="9.643988233600506"><ele>688.0</ele><time>2026-04-30T06:47:01.904Z</time></trkpt><trkpt lat="40.3814905027496" lon="9.644087287476477"><ele>688.0</ele><time>2026-04-30T06:47:02.904Z</time></trkpt><trkpt lat="40.38148998730503" lon="9.644171834464231"><ele>688.0</ele><time>2026-04-30T06:47:03.904Z</time></trkpt><trkpt lat="40.381491212472056" lon="9.644267528147996"><ele>688.0</ele><time>2026-04-30T06:47:04.904Z</time></trkpt><trkpt lat="40.38148412420713" lon="9.644402260758843"><ele>688.0</ele><time>2026-04-30T06:47:06.903Z</time></trkpt><trkpt lat="40.3814822863013" lon="9.644509385166533"><ele>685.8333333333334</ele><time>2026-04-30T06:47:08.903Z</time></trkpt><trkpt lat="40.381481179668825" lon="9.644616771677502"><ele>683.6666666666667</ele><time>2026-04-30T06:47:10.903Z</time></trkpt><trkpt lat="40.381484747650184" lon="9.644720854955095"><ele>681.5</ele><time>2026-04-30T06:47:12.902Z</time></trkpt><trkpt lat="40.38152879863542" lon="9.644798957077334"><ele>679.3333333333334</ele><time>2026-04-30T06:47:14.902Z</time></trkpt><trkpt lat="40.38160615159451" lon="9.644805570497496"><ele>677.1666666666666</ele><time>2026-04-30T06:47:17.901Z</time></trkpt><trkpt lat="40.38169286672812" lon="9.64481872390273"><ele>675.0</ele><time>2026-04-30T06:47:19.901Z</time></trkpt><trkpt lat="40.381758825309525" lon="9.644836923050926"><ele>675.0</ele><time>2026-04-30T06:47:21.901Z</time></trkpt><trkpt lat="40.38176911481649" lon="9.644933714493801"><ele>675.0</ele><time>2026-04-30T06:47:23.901Z</time></trkpt><trkpt lat="40.381718630477025" lon="9.644988795954367"><ele>675.0</ele><time>2026-04-30T06:47:26.901Z</time></trkpt><trkpt lat="40.38163120216224" lon="9.64501348982453"><ele>675.0</ele><time>2026-04-30T06:47:29.9Z</time></trkpt><trkpt lat="40.38153539221285" lon="9.645063117213168"><ele>675.0</ele><time>2026-04-30T06:47:31.9Z</time></trkpt><trkpt lat="40.381480442408694" lon="9.645125732966404"><ele>675.0</ele><time>2026-04-30T06:47:33.9Z</time></trkpt><trkpt lat="40.38140560908035" lon="9.64519430479668"><ele>670.8</ele><time>2026-04-30T06:47:35.9Z</time></trkpt><trkpt lat="40.38131891728195" lon="9.645229250731589"><ele>666.6</ele><time>2026-04-30T06:47:37.9Z</time></trkpt><trkpt lat="40.38123438207759" lon="9.645270730206216"><ele>662.4000000000001</ele><time>2026-04-30T06:47:39.899Z</time></trkpt><trkpt lat="40.381135220076665" lon="9.645289805312121"><ele>658.2</ele><time>2026-04-30T06:47:41.899Z</time></trkpt><trkpt lat="40.3810416478317" lon="9.645291042695044"><ele>654.0</ele><time>2026-04-30T06:47:43.899Z</time></trkpt><trkpt lat="40.38095026851278" lon="9.645298696113873"><ele>654.0</ele><time>2026-04-30T06:47:45.899Z</time></trkpt><trkpt lat="40.380881463845846" lon="9.645306087816188"><ele>654.0</ele><time>2026-04-30T06:47:47.899Z</time></trkpt><trkpt lat="40.380799722391295" lon="9.645295568147247"><ele>654.0</ele><time>2026-04-30T06:47:49.899Z</time></trkpt><trkpt lat="40.38073509357291" lon="9.645231077289399"><ele>654.0</ele><time>2026-04-30T06:47:52.899Z</time></trkpt><trkpt lat="40.38069261055051" lon="9.645148359926841"><ele>654.0</ele><time>2026-04-30T06:47:54.899Z</time></trkpt><trkpt lat="40.38061990735714" lon="9.645028938704451"><ele>654.0</ele><time>2026-04-30T06:47:56.899Z</time></trkpt><trkpt lat="40.38053164375355" lon="9.644967414627649"><ele>649.8333333333334</ele><time>2026-04-30T06:47:58.899Z</time></trkpt><trkpt lat="40.38046563209966" lon="9.644901525636847"><ele>645.6666666666666</ele><time>2026-04-30T06:48:00.899Z</time></trkpt><trkpt lat="40.38035798946537" lon="9.644856531240913"><ele>641.5</ele><time>2026-04-30T06:48:02.899Z</time></trkpt><trkpt lat="40.380271416598035" lon="9.644843192700282"><ele>637.3333333333333</ele><time>2026-04-30T06:48:04.899Z</time></trkpt><trkpt lat="40.380207040532376" lon="9.6447867789638"><ele>633.1666666666666</ele><time>2026-04-30T06:48:06.899Z</time></trkpt><trkpt lat="40.380129074533066" lon="9.644788692181312"><ele>629.0</ele><time>2026-04-30T06:48:08.899Z</time></trkpt><trkpt lat="40.380073247766745" lon="9.644833370110991"><ele>629.0</ele><time>2026-04-30T06:48:10.898Z</time></trkpt><trkpt lat="40.38004874280544" lon="9.644910188449217"><ele>629.0</ele><time>2026-04-30T06:48:14.898Z</time></trkpt><trkpt lat="40.38008942520612" lon="9.645002738753497"><ele>629.0</ele><time>2026-04-30T06:48:17.898Z</time></trkpt><trkpt lat="40.38012196200381" lon="9.64509600164803"><ele>629.0</ele><time>2026-04-30T06:48:19.898Z</time></trkpt><trkpt lat="40.3801510859518" lon="9.645211574862751"><ele>629.0</ele><time>2026-04-30T06:48:21.898Z</time></trkpt><trkpt lat="40.38014106200043" lon="9.645348744777479"><ele>629.0</ele><time>2026-04-30T06:48:23.898Z</time></trkpt><trkpt lat="40.380095195561594" lon="9.645453089590845"><ele>627.6666666666666</ele><time>2026-04-30T06:48:25.898Z</time></trkpt><trkpt lat="40.3800046823127" lon="9.645536000052497"><ele>626.3333333333333</ele><time>2026-04-30T06:48:27.898Z</time></trkpt><trkpt lat="40.37995178470394" lon="9.645618090885861"><ele>625.0</ele><time>2026-04-30T06:48:29.898Z</time></trkpt><trkpt lat="40.379930198626155" lon="9.64570526069423"><ele>623.6666666666666</ele><time>2026-04-30T06:48:30.898Z</time></trkpt><trkpt lat="40.37990772822168" lon="9.645797786509272"><ele>622.3333333333334</ele><time>2026-04-30T06:48:31.898Z</time></trkpt><trkpt lat="40.37989305186611" lon="9.645881455796577"><ele>621.0</ele><time>2026-04-30T06:48:32.898Z</time></trkpt><trkpt lat="40.37989441476518" lon="9.645985437869875"><ele>621.0</ele><time>2026-04-30T06:48:34.898Z</time></trkpt><trkpt lat="40.37994254031062" lon="9.646098168467068"><ele>621.0</ele><time>2026-04-30T06:48:36.898Z</time></trkpt><trkpt lat="40.37994131082774" lon="9.64621761202198"><ele>621.0</ele><time>2026-04-30T06:48:38.898Z</time></trkpt><trkpt lat="40.37987746907173" lon="9.646232249359818"><ele>621.0</ele><time>2026-04-30T06:48:40.898Z</time></trkpt><trkpt lat="40.3798280861532" lon="9.64614876126118"><ele>621.0</ele><time>2026-04-30T06:48:43.898Z</time></trkpt><trkpt lat="40.379773544433846" lon="9.646039225048748"><ele>621.0</ele><time>2026-04-30T06:48:45.898Z</time></trkpt><trkpt lat="40.37970508248482" lon="9.645979227663187"><ele>617.0</ele><time>2026-04-30T06:48:47.898Z</time></trkpt><trkpt lat="40.379664692486976" lon="9.645875824706932"><ele>613.0</ele><time>2026-04-30T06:48:49.897Z</time></trkpt><trkpt lat="40.37964191859404" lon="9.645731025086935"><ele>609.0</ele><time>2026-04-30T06:48:51.897Z</time></trkpt><trkpt lat="40.37962547959499" lon="9.645645569189824"><ele>605.0</ele><time>2026-04-30T06:48:53.897Z</time></trkpt><trkpt lat="40.37956091086116" lon="9.645559890925087"><ele>601.0</ele><time>2026-04-30T06:48:55.897Z</time></trkpt><trkpt lat="40.379474384678396" lon="9.6455380016393"><ele>597.0</ele><time>2026-04-30T06:48:57.897Z</time></trkpt><trkpt lat="40.37935609108065" lon="9.645512034338637"><ele>597.0</ele><time>2026-04-30T06:48:59.897Z</time></trkpt><trkpt lat="40.379236466073664" lon="9.64550708311241"><ele>597.0</ele><time>2026-04-30T06:49:01.897Z</time></trkpt><trkpt lat="40.37912853347395" lon="9.645491479077679"><ele>597.0</ele><time>2026-04-30T06:49:03.897Z</time></trkpt><trkpt lat="40.37904874683657" lon="9.645454741827493"><ele>597.0</ele><time>2026-04-30T06:49:05.897Z</time></trkpt><trkpt lat="40.378954216463434" lon="9.645388428202033"><ele>597.0</ele><time>2026-04-30T06:49:07.897Z</time></trkpt><trkpt lat="40.37887275715353" lon="9.645313347575797"><ele>596.2</ele><time>2026-04-30T06:49:09.897Z</time></trkpt><trkpt lat="40.37878343956303" lon="9.645222978825592"><ele>595.4000000000001</ele><time>2026-04-30T06:49:11.897Z</time></trkpt><trkpt lat="40.37869144579322" lon="9.645164646452182"><ele>594.5999999999999</ele><time>2026-04-30T06:49:13.897Z</time></trkpt><trkpt lat="40.37861969763823" lon="9.645057053178883"><ele>593.8</ele><time>2026-04-30T06:49:15.897Z</time></trkpt><trkpt lat="40.378574741913866" lon="9.644950464868879"><ele>593.0</ele><time>2026-04-30T06:49:17.897Z</time></trkpt><trkpt lat="40.378542314214485" lon="9.644841477407969"><ele>593.0</ele><time>2026-04-30T06:49:19.897Z</time></trkpt><trkpt lat="40.37848472004934" lon="9.644771589931675"><ele>593.0</ele><time>2026-04-30T06:49:22.896Z</time></trkpt><trkpt lat="40.37843871084506" lon="9.644836976691598"><ele>593.0</ele><time>2026-04-30T06:49:24.895Z</time></trkpt><trkpt lat="40.37844508635568" lon="9.644955692437707"><ele>593.0</ele><time>2026-04-30T06:49:26.896Z</time></trkpt><trkpt lat="40.378451466609015" lon="9.645065668153919"><ele>593.0</ele><time>2026-04-30T06:49:28.896Z</time></trkpt><trkpt lat="40.37844859658716" lon="9.645200896535759"><ele>593.0</ele><time>2026-04-30T06:49:30.896Z</time></trkpt><trkpt lat="40.37842883354947" lon="9.645337474135061"><ele>590.0</ele><time>2026-04-30T06:49:32.896Z</time></trkpt><trkpt lat="40.378411035515526" lon="9.645455858973948"><ele>587.0</ele><time>2026-04-30T06:49:34.896Z</time></trkpt><trkpt lat="40.37839958963645" lon="9.645620385664175"><ele>584.0</ele><time>2026-04-30T06:49:36.895Z</time></trkpt><trkpt lat="40.37842464951042" lon="9.645771233088421"><ele>581.0</ele><time>2026-04-30T06:49:38.895Z</time></trkpt><trkpt lat="40.37846135792454" lon="9.645904122492098"><ele>578.0</ele><time>2026-04-30T06:49:40.895Z</time></trkpt><trkpt lat="40.378487269320345" lon="9.64600204395274"><ele>578.0</ele><time>2026-04-30T06:49:41.895Z</time></trkpt><trkpt lat="40.378522319611065" lon="9.646079196622766"><ele>578.0</ele><time>2026-04-30T06:49:42.895Z</time></trkpt><trkpt lat="40.378550793558055" lon="9.64621397031796"><ele>578.0</ele><time>2026-04-30T06:49:44.895Z</time></trkpt><trkpt lat="40.378564259390735" lon="9.646350112066829"><ele>578.0</ele><time>2026-04-30T06:49:46.895Z</time></trkpt><trkpt lat="40.37862221741728" lon="9.64645780291876"><ele>578.0</ele><time>2026-04-30T06:49:48.895Z</time></trkpt><trkpt lat="40.378653036179976" lon="9.646538391899341"><ele>578.0</ele><time>2026-04-30T06:49:49.895Z</time></trkpt><trkpt lat="40.37867928521272" lon="9.646630290959141"><ele>575.5714285714286</ele><time>2026-04-30T06:49:50.895Z</time></trkpt><trkpt lat="40.378714434117285" lon="9.646717433688778"><ele>573.1428571428571</ele><time>2026-04-30T06:49:51.895Z</time></trkpt><trkpt lat="40.378749595327555" lon="9.646794021533449"><ele>570.7142857142857</ele><time>2026-04-30T06:49:52.895Z</time></trkpt><trkpt lat="40.378766102335355" lon="9.646875049021604"><ele>568.2857142857142</ele><time>2026-04-30T06:49:53.895Z</time></trkpt><trkpt lat="40.37877090484581" lon="9.646968801055918"><ele>565.8571428571428</ele><time>2026-04-30T06:49:54.895Z</time></trkpt><trkpt lat="40.378768800568125" lon="9.647058264134381"><ele>563.4285714285714</ele><time>2026-04-30T06:49:55.895Z</time></trkpt><trkpt lat="40.37876465436961" lon="9.647143591145786"><ele>561.0</ele><time>2026-04-30T06:49:56.895Z</time></trkpt><trkpt lat="40.378717853694226" lon="9.647283260763908"><ele>559.3333333333334</ele><time>2026-04-30T06:49:58.895Z</time></trkpt><trkpt lat="40.37869219182251" lon="9.647362614258395"><ele>557.6666666666666</ele><time>2026-04-30T06:49:59.895Z</time></trkpt><trkpt lat="40.37864578211788" lon="9.647488416015513"><ele>556.0</ele><time>2026-04-30T06:50:01.895Z</time></trkpt><trkpt lat="40.37862416132524" lon="9.64757063149575"><ele>554.3333333333333</ele><time>2026-04-30T06:50:02.895Z</time></trkpt><trkpt lat="40.37859783179103" lon="9.647650914602355"><ele>552.6666666666666</ele><time>2026-04-30T06:50:03.895Z</time></trkpt><trkpt lat="40.37855267131593" lon="9.6477727694558"><ele>551.0</ele><time>2026-04-30T06:50:05.895Z</time></trkpt><trkpt lat="40.378559671200904" lon="9.647904974055848"><ele>550.5</ele><time>2026-04-30T06:50:07.894Z</time></trkpt><trkpt lat="40.37861160017946" lon="9.647965658198526"><ele>550.0</ele><time>2026-04-30T06:50:09.894Z</time></trkpt><trkpt lat="40.37861910243564" lon="9.64805710167851"><ele>549.5</ele><time>2026-04-30T06:50:11.894Z</time></trkpt><trkpt lat="40.3786123852615" lon="9.648185899040229"><ele>549.0</ele><time>2026-04-30T06:50:13.894Z</time></trkpt><trkpt lat="40.37855495085124" lon="9.648298103365365"><ele>548.5</ele><time>2026-04-30T06:50:16.894Z</time></trkpt><trkpt lat="40.37848722938399" lon="9.648277859927349"><ele>548.0</ele><time>2026-04-30T06:50:20.894Z</time></trkpt><trkpt lat="40.378448449631456" lon="9.64818422934496"><ele>548.0</ele><time>2026-04-30T06:50:23.894Z</time></trkpt><trkpt lat="40.37838302915968" lon="9.648070121500135"><ele>548.0</ele><time>2026-04-30T06:50:25.894Z</time></trkpt><trkpt lat="40.37836050690422" lon="9.647984205610188"><ele>548.0</ele><time>2026-04-30T06:50:27.894Z</time></trkpt><trkpt lat="40.378279857890334" lon="9.6479543031242"><ele>548.0</ele><time>2026-04-30T06:50:30.894Z</time></trkpt><trkpt lat="40.3782275090186" lon="9.648032552745148"><ele>548.0</ele><time>2026-04-30T06:50:33.894Z</time></trkpt><trkpt lat="40.37822582356554" lon="9.648153834403297"><ele>548.0</ele><time>2026-04-30T06:50:36.894Z</time></trkpt><trkpt lat="40.37816763589774" lon="9.648197896050567"><ele>548.0</ele><time>2026-04-30T06:50:38.894Z</time></trkpt><trkpt lat="40.3780902929804" lon="9.648186986706284"><ele>548.0</ele><time>2026-04-30T06:50:40.894Z</time></trkpt><trkpt lat="40.37801957893838" lon="9.64820206614323"><ele>548.0</ele><time>2026-04-30T06:50:42.894Z</time></trkpt><trkpt lat="40.37795992844947" lon="9.648244762060786"><ele>548.0</ele><time>2026-04-30T06:50:44.894Z</time></trkpt><trkpt lat="40.37791510824173" lon="9.648320900887533"><ele>548.0</ele><time>2026-04-30T06:50:46.894Z</time></trkpt><trkpt lat="40.37786431864062" lon="9.648389864378956"><ele>548.0</ele><time>2026-04-30T06:50:48.893Z</time></trkpt><trkpt lat="40.377823467674006" lon="9.648489831982566"><ele>542.8333333333333</ele><time>2026-04-30T06:50:51.893Z</time></trkpt><trkpt lat="40.37785166537996" lon="9.648586445422168"><ele>537.6666666666666</ele><time>2026-04-30T06:50:54.893Z</time></trkpt><trkpt lat="40.377877880016364" lon="9.648692240053434"><ele>532.5</ele><time>2026-04-30T06:50:57.893Z</time></trkpt><trkpt lat="40.37781635304786" lon="9.648765290128194"><ele>527.3333333333334</ele><time>2026-04-30T06:50:59.893Z</time></trkpt><trkpt lat="40.37774250586968" lon="9.648833583175518"><ele>522.1666666666667</ele><time>2026-04-30T06:51:01.893Z</time></trkpt><trkpt lat="40.37767092446179" lon="9.648903681134628"><ele>517.0</ele><time>2026-04-30T06:51:03.893Z</time></trkpt><trkpt lat="40.37760215356079" lon="9.648934920620905"><ele>517.0</ele><time>2026-04-30T06:51:05.893Z</time></trkpt><trkpt lat="40.37754580060471" lon="9.648982671980313"><ele>517.0</ele><time>2026-04-30T06:51:07.893Z</time></trkpt><trkpt lat="40.377475660084215" lon="9.649059160574902"><ele>517.0</ele><time>2026-04-30T06:51:09.893Z</time></trkpt><trkpt lat="40.37742464829384" lon="9.649170547352446"><ele>517.0</ele><time>2026-04-30T06:51:12.893Z</time></trkpt><trkpt lat="40.37738996248379" lon="9.649264821908382"><ele>517.0</ele><time>2026-04-30T06:51:14.893Z</time></trkpt><trkpt lat="40.377354186635195" lon="9.649390833805711"><ele>517.0</ele><time>2026-04-30T06:51:16.893Z</time></trkpt><trkpt lat="40.37730369438025" lon="9.64951108100006"><ele>517.6666666666667</ele><time>2026-04-30T06:51:18.893Z</time></trkpt><trkpt lat="40.3772353534695" lon="9.649598752458656"><ele>518.3333333333334</ele><time>2026-04-30T06:51:20.893Z</time></trkpt><trkpt lat="40.37718058975043" lon="9.649699071963408"><ele>519.0</ele><time>2026-04-30T06:51:22.893Z</time></trkpt><trkpt lat="40.37715842241758" lon="9.649822228371589"><ele>519.6666666666666</ele><time>2026-04-30T06:51:24.893Z</time></trkpt><trkpt lat="40.37711624694283" lon="9.649899224416501"><ele>520.3333333333333</ele><time>2026-04-30T06:51:26.893Z</time></trkpt><trkpt lat="40.37705031537689" lon="9.649904188404937"><ele>521.0</ele><time>2026-04-30T06:51:28.892Z</time></trkpt><trkpt lat="40.37698453664065" lon="9.64981333889297"><ele>515.0</ele><time>2026-04-30T06:51:31.892Z</time></trkpt><trkpt lat="40.376993327806574" lon="9.649712924412793"><ele>509.0</ele><time>2026-04-30T06:51:34.892Z</time></trkpt><trkpt lat="40.377030901746366" lon="9.649598275050717"><ele>503.0</ele><time>2026-04-30T06:51:36.892Z</time></trkpt><trkpt lat="40.37707857585601" lon="9.649456603981976"><ele>497.0</ele><time>2026-04-30T06:51:38.891Z</time></trkpt><trkpt lat="40.37713864547446" lon="9.64939520160924"><ele>491.0</ele><time>2026-04-30T06:51:39.891Z</time></trkpt><trkpt lat="40.37710786781218" lon="9.649226652696965"><ele>491.0</ele><time>2026-04-30T06:51:41.891Z</time></trkpt><trkpt lat="40.37709795381701" lon="9.64907513445435"><ele>491.0</ele><time>2026-04-30T06:51:43.891Z</time></trkpt><trkpt lat="40.37707763158336" lon="9.648941454961019"><ele>491.0</ele><time>2026-04-30T06:51:45.891Z</time></trkpt><trkpt lat="40.37703048584215" lon="9.648851075747393"><ele>491.0</ele><time>2026-04-30T06:51:48.891Z</time></trkpt><trkpt lat="40.376960604759894" lon="9.64893232757831"><ele>491.0</ele><time>2026-04-30T06:51:51.891Z</time></trkpt><trkpt lat="40.376904885425944" lon="9.649067062388953"><ele>491.0</ele><time>2026-04-30T06:51:53.891Z</time></trkpt><trkpt lat="40.37682393619555" lon="9.649123554158637"><ele>491.0</ele><time>2026-04-30T06:51:56.891Z</time></trkpt><trkpt lat="40.376745051777725" lon="9.649162773498018"><ele>491.0</ele><time>2026-04-30T06:51:58.891Z</time></trkpt><trkpt lat="40.376671863821386" lon="9.64922579060566"><ele>491.0</ele><time>2026-04-30T06:52:00.891Z</time></trkpt><trkpt lat="40.37659933332238" lon="9.64932155046304"><ele>491.0</ele><time>2026-04-30T06:52:02.891Z</time></trkpt><trkpt lat="40.37654029326597" lon="9.649403976221944"><ele>489.8333333333333</ele><time>2026-04-30T06:52:04.891Z</time></trkpt><trkpt lat="40.37647652957327" lon="9.649486953235764"><ele>488.66666666666663</ele><time>2026-04-30T06:52:06.891Z</time></trkpt><trkpt lat="40.37642751152124" lon="9.64956125386403"><ele>487.5</ele><time>2026-04-30T06:52:08.891Z</time></trkpt><trkpt lat="40.37638796079833" lon="9.649641813461189"><ele>486.33333333333337</ele><time>2026-04-30T06:52:10.891Z</time></trkpt><trkpt lat="40.376347979688845" lon="9.649709689148764"><ele>485.1666666666667</ele><time>2026-04-30T06:52:12.891Z</time></trkpt><trkpt lat="40.3763008755195" lon="9.649798720769772"><ele>484.0</ele><time>2026-04-30T06:52:14.891Z</time></trkpt><trkpt lat="40.37625104710981" lon="9.649919474018889"><ele>481.2</ele><time>2026-04-30T06:52:16.891Z</time></trkpt><trkpt lat="40.37619054511338" lon="9.650031408641516"><ele>478.4</ele><time>2026-04-30T06:52:18.89Z</time></trkpt><trkpt lat="40.37615587495037" lon="9.650130603534919"><ele>475.6</ele><time>2026-04-30T06:52:20.89Z</time></trkpt><trkpt lat="40.376104379654336" lon="9.650233498542203"><ele>472.8</ele><time>2026-04-30T06:52:22.89Z</time></trkpt><trkpt lat="40.37604653641423" lon="9.650304591831743"><ele>470.0</ele><time>2026-04-30T06:52:24.89Z</time></trkpt><trkpt lat="40.37597280346283" lon="9.650373848151107"><ele>468.2</ele><time>2026-04-30T06:52:26.89Z</time></trkpt><trkpt lat="40.375888291558695" lon="9.650462086109298"><ele>466.4</ele><time>2026-04-30T06:52:28.89Z</time></trkpt><trkpt lat="40.37581292593999" lon="9.650532051467197"><ele>464.6</ele><time>2026-04-30T06:52:30.89Z</time></trkpt><trkpt lat="40.37571426925321" lon="9.650630683695"><ele>462.8</ele><time>2026-04-30T06:52:32.89Z</time></trkpt><trkpt lat="40.375669857431014" lon="9.650691648881702"><ele>461.0</ele><time>2026-04-30T06:52:33.89Z</time></trkpt><trkpt lat="40.37559518448629" lon="9.650798899919776"><ele>461.0</ele><time>2026-04-30T06:52:35.89Z</time></trkpt><trkpt lat="40.37552540513895" lon="9.650869605546664"><ele>461.0</ele><time>2026-04-30T06:52:37.89Z</time></trkpt><trkpt lat="40.375452462918155" lon="9.650960332853996"><ele>461.0</ele><time>2026-04-30T06:52:39.89Z</time></trkpt><trkpt lat="40.37536914826662" lon="9.651042998282858"><ele>461.0</ele><time>2026-04-30T06:52:41.89Z</time></trkpt><trkpt lat="40.3752742092256" lon="9.651110454319538"><ele>461.0</ele><time>2026-04-30T06:52:43.89Z</time></trkpt><trkpt lat="40.37516935794923" lon="9.65116661764308"><ele>456.25</ele><time>2026-04-30T06:52:45.89Z</time></trkpt><trkpt lat="40.37505767792392" lon="9.651226284301927"><ele>451.5</ele><time>2026-04-30T06:52:47.89Z</time></trkpt><trkpt lat="40.37493506289735" lon="9.651280786566703"><ele>446.75</ele><time>2026-04-30T06:52:49.89Z</time></trkpt><trkpt lat="40.37484226634025" lon="9.651336394441538"><ele>442.0</ele><time>2026-04-30T06:52:51.89Z</time></trkpt><trkpt lat="40.37475476239137" lon="9.651413548752267"><ele>437.8</ele><time>2026-04-30T06:52:53.89Z</time></trkpt><trkpt lat="40.37464893541555" lon="9.651443647095864"><ele>433.6</ele><time>2026-04-30T06:52:55.89Z</time></trkpt><trkpt lat="40.37456203918096" lon="9.651492682675721"><ele>429.40000000000003</ele><time>2026-04-30T06:52:57.889Z</time></trkpt><trkpt lat="40.3744848974585" lon="9.651500380287693"><ele>425.20000000000005</ele><time>2026-04-30T06:52:59.889Z</time></trkpt><trkpt lat="40.37439041667704" lon="9.651516512126516"><ele>421.0</ele><time>2026-04-30T06:53:01.889Z</time></trkpt><trkpt lat="40.37431631694156" lon="9.651565149635438"><ele>421.00000000000006</ele><time>2026-04-30T06:53:03.889Z</time></trkpt><trkpt lat="40.37426408161543" lon="9.65162631600765"><ele>421.0</ele><time>2026-04-30T06:53:04.889Z</time></trkpt><trkpt lat="40.3742168187029" lon="9.651693399903001"><ele>421.0</ele><time>2026-04-30T06:53:05.889Z</time></trkpt><trkpt lat="40.37417511042831" lon="9.65177137924671"><ele>421.0</ele><time>2026-04-30T06:53:06.889Z</time></trkpt><trkpt lat="40.374144632876394" lon="9.65186852195508"><ele>421.0</ele><time>2026-04-30T06:53:07.889Z</time></trkpt><trkpt lat="40.37410613073461" lon="9.651951471490088"><ele>421.00000000000006</ele><time>2026-04-30T06:53:08.889Z</time></trkpt><trkpt lat="40.37408415168747" lon="9.652036596412323"><ele>421.0</ele><time>2026-04-30T06:53:09.889Z</time></trkpt><trkpt lat="40.374030382567554" lon="9.652131575790047"><ele>418.83333333333337</ele><time>2026-04-30T06:53:11.889Z</time></trkpt><trkpt lat="40.37395643508964" lon="9.65220050164189"><ele>416.6666666666667</ele><time>2026-04-30T06:53:13.889Z</time></trkpt><trkpt lat="40.373875586018556" lon="9.652185862154253"><ele>414.5</ele><time>2026-04-30T06:53:15.889Z</time></trkpt><trkpt lat="40.3737909772825" lon="9.652164425939052"><ele>412.33333333333337</ele><time>2026-04-30T06:53:17.889Z</time></trkpt><trkpt lat="40.37369926546855" lon="9.652129732806614"><ele>410.1666666666667</ele><time>2026-04-30T06:53:19.889Z</time></trkpt><trkpt lat="40.373621007870824" lon="9.652068869088009"><ele>408.0</ele><time>2026-04-30T06:53:21.889Z</time></trkpt><trkpt lat="40.37352872625562" lon="9.652004115582965"><ele>408.1666666666667</ele><time>2026-04-30T06:53:23.889Z</time></trkpt><trkpt lat="40.37349436787599" lon="9.651913995987261"><ele>408.33333333333337</ele><time>2026-04-30T06:53:25.889Z</time></trkpt><trkpt lat="40.3734273212186" lon="9.651890519653524"><ele>408.5</ele><time>2026-04-30T06:53:27.889Z</time></trkpt><trkpt lat="40.37338073047079" lon="9.651948926843406"><ele>408.6666666666667</ele><time>2026-04-30T06:53:29.889Z</time></trkpt><trkpt lat="40.37335097689983" lon="9.652094482711274"><ele>408.83333333333337</ele><time>2026-04-30T06:53:31.889Z</time></trkpt><trkpt lat="40.37330507764487" lon="9.652235743524242"><ele>409.0</ele><time>2026-04-30T06:53:33.889Z</time></trkpt><trkpt lat="40.373253190635715" lon="9.652382359934222"><ele>406.4</ele><time>2026-04-30T06:53:35.888Z</time></trkpt><trkpt lat="40.37322738320692" lon="9.65253941279643"><ele>403.79999999999995</ele><time>2026-04-30T06:53:37.888Z</time></trkpt><trkpt lat="40.3732134093936" lon="9.65262337114866"><ele>401.20000000000005</ele><time>2026-04-30T06:53:38.887Z</time></trkpt><trkpt lat="40.373236350656896" lon="9.65278424025172"><ele>398.6</ele><time>2026-04-30T06:53:40.887Z</time></trkpt><trkpt lat="40.37328378696828" lon="9.652904738235815"><ele>396.0</ele><time>2026-04-30T06:53:42.887Z</time></trkpt><trkpt lat="40.37333863392026" lon="9.653030428188384"><ele>393.6666666666667</ele><time>2026-04-30T06:53:44.887Z</time></trkpt><trkpt lat="40.3733515116408" lon="9.653118198787297"><ele>391.3333333333333</ele><time>2026-04-30T06:53:45.887Z</time></trkpt><trkpt lat="40.373366496214935" lon="9.653215014324541"><ele>389.0</ele><time>2026-04-30T06:53:46.887Z</time></trkpt><trkpt lat="40.373395044011446" lon="9.653329257493596"><ele>386.66666666666663</ele><time>2026-04-30T06:53:48.887Z</time></trkpt><trkpt lat="40.37345126175289" lon="9.653407390197577"><ele>384.3333333333333</ele><time>2026-04-30T06:53:50.887Z</time></trkpt><trkpt lat="40.37355468783332" lon="9.653492254204494"><ele>382.0</ele><time>2026-04-30T06:53:52.887Z</time></trkpt><trkpt lat="40.37361183855267" lon="9.653537826746101"><ele>379.8</ele><time>2026-04-30T06:53:53.887Z</time></trkpt><trkpt lat="40.37369580518849" lon="9.653628210677883"><ele>377.6</ele><time>2026-04-30T06:53:55.886Z</time></trkpt><trkpt lat="40.37373847110951" lon="9.653711616408042"><ele>375.40000000000003</ele><time>2026-04-30T06:53:56.886Z</time></trkpt><trkpt lat="40.37376757825029" lon="9.653862903090712"><ele>373.20000000000005</ele><time>2026-04-30T06:53:58.886Z</time></trkpt><trkpt lat="40.373833454405705" lon="9.653953946992429"><ele>371.0</ele><time>2026-04-30T06:54:00.886Z</time></trkpt><trkpt lat="40.37395266923109" lon="9.654004883694926"><ele>371.0</ele><time>2026-04-30T06:54:02.886Z</time></trkpt><trkpt lat="40.37403268818847" lon="9.654020214771796"><ele>371.0</ele><time>2026-04-30T06:54:03.886Z</time></trkpt><trkpt lat="40.37412622989073" lon="9.654099295085683"><ele>371.0</ele><time>2026-04-30T06:54:05.886Z</time></trkpt><trkpt lat="40.374233569868004" lon="9.654143170265247"><ele>371.0</ele><time>2026-04-30T06:54:07.886Z</time></trkpt><trkpt lat="40.37431430506301" lon="9.654137526789365"><ele>371.0</ele><time>2026-04-30T06:54:10.886Z</time></trkpt><trkpt lat="40.37431675071721" lon="9.654267933074319"><ele>371.0</ele><time>2026-04-30T06:54:13.886Z</time></trkpt><trkpt lat="40.37426171424721" lon="9.65438012831937"><ele>371.0</ele><time>2026-04-30T06:54:15.886Z</time></trkpt><trkpt lat="40.37422202298577" lon="9.654468669795298"><ele>371.0</ele><time>2026-04-30T06:54:17.886Z</time></trkpt><trkpt lat="40.374145693048035" lon="9.654528730914548"><ele>371.0</ele><time>2026-04-30T06:54:19.886Z</time></trkpt><trkpt lat="40.37405433589794" lon="9.654586263036174"><ele>371.0</ele><time>2026-04-30T06:54:21.886Z</time></trkpt><trkpt lat="40.37395980368774" lon="9.654641276617504"><ele>368.20000000000005</ele><time>2026-04-30T06:54:23.886Z</time></trkpt><trkpt lat="40.37387338232898" lon="9.654686361772999"><ele>365.40000000000003</ele><time>2026-04-30T06:54:25.886Z</time></trkpt><trkpt lat="40.37377402725651" lon="9.654778849564408"><ele>362.6</ele><time>2026-04-30T06:54:27.886Z</time></trkpt><trkpt lat="40.3737230284697" lon="9.65483626904171"><ele>359.8</ele><time>2026-04-30T06:54:28.886Z</time></trkpt><trkpt lat="40.37362283380335" lon="9.654900383097534"><ele>357.0</ele><time>2026-04-30T06:54:30.886Z</time></trkpt><trkpt lat="40.37355470151224" lon="9.654921780492094"><ele>355.57142857142856</ele><time>2026-04-30T06:54:31.886Z</time></trkpt><trkpt lat="40.37348490883471" lon="9.654955416551923"><ele>354.1428571428571</ele><time>2026-04-30T06:54:32.886Z</time></trkpt><trkpt lat="40.37338349825199" lon="9.654973104349384"><ele>352.7142857142857</ele><time>2026-04-30T06:54:34.885Z</time></trkpt><trkpt lat="40.37331975862655" lon="9.655008930531839"><ele>351.2857142857143</ele><time>2026-04-30T06:54:35.885Z</time></trkpt><trkpt lat="40.373260761469936" lon="9.655060339219668"><ele>349.85714285714283</ele><time>2026-04-30T06:54:36.885Z</time></trkpt><trkpt lat="40.37320345029257" lon="9.655104671090104"><ele>348.42857142857144</ele><time>2026-04-30T06:54:37.885Z</time></trkpt><trkpt lat="40.37315378355616" lon="9.65515711862726"><ele>347.0</ele><time>2026-04-30T06:54:38.885Z</time></trkpt><trkpt lat="40.37308288101189" lon="9.65522926409015"><ele>346.1666666666667</ele><time>2026-04-30T06:54:39.885Z</time></trkpt><trkpt lat="40.37300813206747" lon="9.655259532203255"><ele>345.33333333333337</ele><time>2026-04-30T06:54:40.885Z</time></trkpt><trkpt lat="40.37294118139892" lon="9.655289230015805"><ele>344.5</ele><time>2026-04-30T06:54:41.885Z</time></trkpt><trkpt lat="40.372872284347324" lon="9.655319356324583"><ele>343.6666666666667</ele><time>2026-04-30T06:54:42.885Z</time></trkpt><trkpt lat="40.37280101092058" lon="9.655335564427022"><ele>342.8333333333333</ele><time>2026-04-30T06:54:43.885Z</time></trkpt><trkpt lat="40.37273483739315" lon="9.655355224323824"><ele>342.0</ele><time>2026-04-30T06:54:44.885Z</time></trkpt><trkpt lat="40.37263471569813" lon="9.65541038636345"><ele>339.3333333333333</ele><time>2026-04-30T06:54:46.885Z</time></trkpt><trkpt lat="40.372523103606305" lon="9.65546368279603"><ele>336.6666666666667</ele><time>2026-04-30T06:54:48.885Z</time></trkpt><trkpt lat="40.372456161987714" lon="9.655520929844679"><ele>334.0</ele><time>2026-04-30T06:54:50.885Z</time></trkpt><trkpt lat="40.37247263647563" lon="9.655616361629788"><ele>331.33333333333337</ele><time>2026-04-30T06:54:52.885Z</time></trkpt><trkpt lat="40.37250772910584" lon="9.655709467841689"><ele>328.6666666666667</ele><time>2026-04-30T06:54:54.885Z</time></trkpt><trkpt lat="40.372561072180154" lon="9.65580133853534"><ele>326.0</ele><time>2026-04-30T06:54:56.885Z</time></trkpt><trkpt lat="40.37259944042437" lon="9.655907764886624"><ele>326.0</ele><time>2026-04-30T06:54:57.885Z</time></trkpt><trkpt lat="40.37262950082621" lon="9.656013666006952"><ele>326.0</ele><time>2026-04-30T06:54:58.885Z</time></trkpt><trkpt lat="40.372663448498486" lon="9.656104130800307"><ele>326.0</ele><time>2026-04-30T06:54:59.885Z</time></trkpt><trkpt lat="40.37270077937609" lon="9.656179302138934"><ele>326.0</ele><time>2026-04-30T06:55:00.885Z</time></trkpt><trkpt lat="40.37274720418033" lon="9.656261761580861"><ele>326.0</ele><time>2026-04-30T06:55:01.885Z</time></trkpt><trkpt lat="40.37279401060664" lon="9.656332891248155"><ele>326.0</ele><time>2026-04-30T06:55:02.885Z</time></trkpt><trkpt lat="40.37287059347699" lon="9.6564570205698"><ele>324.6666666666667</ele><time>2026-04-30T06:55:04.885Z</time></trkpt><trkpt lat="40.372959060841964" lon="9.656515622935956"><ele>323.33333333333337</ele><time>2026-04-30T06:55:06.885Z</time></trkpt><trkpt lat="40.3730400611928" lon="9.656526321845192"><ele>322.0</ele><time>2026-04-30T06:55:08.885Z</time></trkpt><trkpt lat="40.37309551752244" lon="9.656623672350397"><ele>320.6666666666667</ele><time>2026-04-30T06:55:10.885Z</time></trkpt><trkpt lat="40.37310028667341" lon="9.656752815562076"><ele>319.3333333333333</ele><time>2026-04-30T06:55:12.885Z</time></trkpt><trkpt lat="40.37311222492309" lon="9.656849272204738"><ele>318.0</ele><time>2026-04-30T06:55:13.884Z</time></trkpt><trkpt lat="40.37313357736139" lon="9.656935984737348"><ele>316.7142857142857</ele><time>2026-04-30T06:55:14.884Z</time></trkpt><trkpt lat="40.373157429738846" lon="9.65703881334365"><ele>315.42857142857144</ele><time>2026-04-30T06:55:15.884Z</time></trkpt><trkpt lat="40.37318612258842" lon="9.657122324150114"><ele>314.14285714285717</ele><time>2026-04-30T06:55:16.884Z</time></trkpt><trkpt lat="40.37322031432592" lon="9.657193931451069"><ele>312.8571428571429</ele><time>2026-04-30T06:55:17.884Z</time></trkpt><trkpt lat="40.373234990830625" lon="9.657288169936429"><ele>311.57142857142856</ele><time>2026-04-30T06:55:18.884Z</time></trkpt><trkpt lat="40.373248635814" lon="9.65738050716575"><ele>310.28571428571433</ele><time>2026-04-30T06:55:19.884Z</time></trkpt><trkpt lat="40.3732348877485" lon="9.657482340247249"><ele>309.0</ele><time>2026-04-30T06:55:20.884Z</time></trkpt><trkpt lat="40.37317856654142" lon="9.657605547431602"><ele>309.0</ele><time>2026-04-30T06:55:22.884Z</time></trkpt><trkpt lat="40.37312048535179" lon="9.657703474755523"><ele>309.0</ele><time>2026-04-30T06:55:24.884Z</time></trkpt><trkpt lat="40.373080452040846" lon="9.65778280825912"><ele>309.0</ele><time>2026-04-30T06:55:26.884Z</time></trkpt><trkpt lat="40.37303195719232" lon="9.657884961540569"><ele>309.0</ele><time>2026-04-30T06:55:28.884Z</time></trkpt><trkpt lat="40.372970203188196" lon="9.658020816559386"><ele>309.0</ele><time>2026-04-30T06:55:30.884Z</time></trkpt><trkpt lat="40.372948784839494" lon="9.658112156478468"><ele>304.0</ele><time>2026-04-30T06:55:31.884Z</time></trkpt><trkpt lat="40.37290136592902" lon="9.658199170602831"><ele>299.0</ele><time>2026-04-30T06:55:32.884Z</time></trkpt><trkpt lat="40.37286806720768" lon="9.658272582532327"><ele>294.0</ele><time>2026-04-30T06:55:33.884Z</time></trkpt><trkpt lat="40.372826250769776" lon="9.65836708341943"><ele>289.0</ele><time>2026-04-30T06:55:34.884Z</time></trkpt><trkpt lat="40.37279185274911" lon="9.658457833071921"><ele>284.0</ele><time>2026-04-30T06:55:35.884Z</time></trkpt><trkpt lat="40.372747908622976" lon="9.658556337845889"><ele>279.0</ele><time>2026-04-30T06:55:36.884Z</time></trkpt><trkpt lat="40.372700530111395" lon="9.658639310401282"><ele>278.1666666666667</ele><time>2026-04-30T06:55:37.884Z</time></trkpt><trkpt lat="40.372646309799414" lon="9.658708271831161"><ele>277.3333333333333</ele><time>2026-04-30T06:55:38.884Z</time></trkpt><trkpt lat="40.372584374264996" lon="9.658780908695308"><ele>276.5</ele><time>2026-04-30T06:55:39.884Z</time></trkpt><trkpt lat="40.37252096814648" lon="9.658857949277836"><ele>275.66666666666663</ele><time>2026-04-30T06:55:40.883Z</time></trkpt><trkpt lat="40.37245696924762" lon="9.658961614572245"><ele>274.8333333333333</ele><time>2026-04-30T06:55:41.884Z</time></trkpt><trkpt lat="40.37240876667457" lon="9.659029319532939"><ele>274.0</ele><time>2026-04-30T06:55:42.884Z</time></trkpt><trkpt lat="40.372346536331484" lon="9.65909181060393"><ele>274.0</ele><time>2026-04-30T06:55:43.884Z</time></trkpt><trkpt lat="40.37228210162642" lon="9.659159976091612"><ele>274.0</ele><time>2026-04-30T06:55:44.883Z</time></trkpt><trkpt lat="40.3721889576681" lon="9.659228428722283"><ele>274.0</ele><time>2026-04-30T06:55:46.883Z</time></trkpt><trkpt lat="40.372095500510206" lon="9.659227829044484"><ele>274.0</ele><time>2026-04-30T06:55:48.883Z</time></trkpt><trkpt lat="40.372024126884654" lon="9.659189777991445"><ele>274.0</ele><time>2026-04-30T06:55:50.883Z</time></trkpt><trkpt lat="40.37192365189421" lon="9.65908393317437"><ele>272.3333333333333</ele><time>2026-04-30T06:55:52.883Z</time></trkpt><trkpt lat="40.37187028028254" lon="9.659004478826771"><ele>270.66666666666663</ele><time>2026-04-30T06:55:53.883Z</time></trkpt><trkpt lat="40.37180823739947" lon="9.658924699295927"><ele>269.0</ele><time>2026-04-30T06:55:54.883Z</time></trkpt><trkpt lat="40.371740909713935" lon="9.658843655247871"><ele>267.3333333333333</ele><time>2026-04-30T06:55:55.883Z</time></trkpt><trkpt lat="40.37167021876057" lon="9.658756828320229"><ele>265.6666666666667</ele><time>2026-04-30T06:55:56.883Z</time></trkpt><trkpt lat="40.37161138798886" lon="9.65867624914723"><ele>264.0</ele><time>2026-04-30T06:55:57.883Z</time></trkpt><trkpt lat="40.37154617068803" lon="9.658599827451699"><ele>264.0</ele><time>2026-04-30T06:55:58.883Z</time></trkpt><trkpt lat="40.37148849985707" lon="9.658514493839816"><ele>264.0</ele><time>2026-04-30T06:55:59.883Z</time></trkpt><trkpt lat="40.37141412026367" lon="9.658431182809576"><ele>264.0</ele><time>2026-04-30T06:56:00.883Z</time></trkpt><trkpt lat="40.37134721313776" lon="9.658354879678573"><ele>264.0</ele><time>2026-04-30T06:56:01.883Z</time></trkpt><trkpt lat="40.37129015003904" lon="9.658289143602634"><ele>264.0</ele><time>2026-04-30T06:56:02.883Z</time></trkpt><trkpt lat="40.371234771234015" lon="9.658229428687592"><ele>264.0</ele><time>2026-04-30T06:56:03.883Z</time></trkpt><trkpt lat="40.37117436058574" lon="9.658189463349446"><ele>264.0</ele><time>2026-04-30T06:56:05.883Z</time></trkpt><trkpt lat="40.37110960721889" lon="9.658285851119947"><ele>264.0</ele><time>2026-04-30T06:56:08.883Z</time></trkpt><trkpt lat="40.371075597476676" lon="9.658453693810317"><ele>264.0</ele><time>2026-04-30T06:56:10.883Z</time></trkpt><trkpt lat="40.37105696539396" lon="9.658556211512774"><ele>264.0</ele><time>2026-04-30T06:56:11.883Z</time></trkpt><trkpt lat="40.37102726003296" lon="9.658657107894893"><ele>264.0</ele><time>2026-04-30T06:56:12.883Z</time></trkpt><trkpt lat="40.37098726192204" lon="9.658753425489206"><ele>260.4</ele><time>2026-04-30T06:56:13.883Z</time></trkpt><trkpt lat="40.370945218212526" lon="9.658855538579303"><ele>256.79999999999995</ele><time>2026-04-30T06:56:14.883Z</time></trkpt><trkpt lat="40.37091274446421" lon="9.658953945842631"><ele>253.20000000000002</ele><time>2026-04-30T06:56:15.883Z</time></trkpt><trkpt lat="40.37087189195311" lon="9.659068243225295"><ele>249.60000000000002</ele><time>2026-04-30T06:56:16.883Z</time></trkpt><trkpt lat="40.370828881856845" lon="9.659183207464247"><ele>246.0</ele><time>2026-04-30T06:56:17.883Z</time></trkpt><trkpt lat="40.370783790406094" lon="9.659287182622723"><ele>246.0</ele><time>2026-04-30T06:56:18.883Z</time></trkpt><trkpt lat="40.37073833169531" lon="9.659397927848502"><ele>246.00000000000003</ele><time>2026-04-30T06:56:19.883Z</time></trkpt><trkpt lat="40.3706940836732" lon="9.659508388819845"><ele>246.00000000000003</ele><time>2026-04-30T06:56:20.883Z</time></trkpt><trkpt lat="40.37063823066904" lon="9.659614992339216"><ele>246.0</ele><time>2026-04-30T06:56:21.883Z</time></trkpt><trkpt lat="40.370585418340156" lon="9.659722005080162"><ele>246.0</ele><time>2026-04-30T06:56:22.883Z</time></trkpt><trkpt lat="40.37054406537099" lon="9.659799263585517"><ele>242.33333333333334</ele><time>2026-04-30T06:56:23.883Z</time></trkpt><trkpt lat="40.370464598459876" lon="9.65988050399419"><ele>238.66666666666669</ele><time>2026-04-30T06:56:25.882Z</time></trkpt><trkpt lat="40.37039563038107" lon="9.659880109759568"><ele>235.0</ele><time>2026-04-30T06:56:26.882Z</time></trkpt><trkpt lat="40.370323521279765" lon="9.65991296002604"><ele>231.33333333333334</ele><time>2026-04-30T06:56:27.882Z</time></trkpt><trkpt lat="40.37023932483709" lon="9.659954084685227"><ele>227.66666666666669</ele><time>2026-04-30T06:56:28.882Z</time></trkpt><trkpt lat="40.37017464243671" lon="9.659990241018281"><ele>224.0</ele><time>2026-04-30T06:56:29.882Z</time></trkpt><trkpt lat="40.37008915517959" lon="9.659995939501007"><ele>224.00000000000003</ele><time>2026-04-30T06:56:31.882Z</time></trkpt><trkpt lat="40.37002152332626" lon="9.65990483651805"><ele>224.0</ele><time>2026-04-30T06:56:33.882Z</time></trkpt><trkpt lat="40.36994749309044" lon="9.659902198013786"><ele>224.0</ele><time>2026-04-30T06:56:35.882Z</time></trkpt><trkpt lat="40.36984262037238" lon="9.659956638623013"><ele>224.0</ele><time>2026-04-30T06:56:37.882Z</time></trkpt><trkpt lat="40.369761638805166" lon="9.659995686202443"><ele>224.00000000000003</ele><time>2026-04-30T06:56:39.882Z</time></trkpt><trkpt lat="40.369731809401145" lon="9.66007392651646"><ele>224.0</ele><time>2026-04-30T06:56:43.882Z</time></trkpt><trkpt lat="40.3697648185653" lon="9.660147659829194"><ele>224.00000000000003</ele><time>2026-04-30T06:58:20.879Z</time></trkpt><trkpt lat="40.36977673448255" lon="9.660244740909027"><ele>224.0</ele><time>2026-04-30T06:58:23.878Z</time></trkpt><trkpt lat="40.369741854095395" lon="9.660318044123628"><ele>224.0</ele><time>2026-04-30T06:58:40.878Z</time></trkpt><trkpt lat="40.36971759375148" lon="9.660433840040868"><ele>224.0</ele><time>2026-04-30T06:58:59.878Z</time></trkpt><trkpt lat="40.36969842207939" lon="9.660559192968341"><ele>224.00000000000003</ele><time>2026-04-30T06:59:02.877Z</time></trkpt><trkpt lat="40.36968626118472" lon="9.660647187472142"><ele>224.0</ele><time>2026-04-30T06:59:04.877Z</time></trkpt><trkpt lat="40.36967098794482" lon="9.660747283141832"><ele>219.79999999999998</ele><time>2026-04-30T06:59:06.877Z</time></trkpt><trkpt lat="40.36966105470266" lon="9.660861548725494"><ele>215.59999999999997</ele><time>2026-04-30T06:59:08.877Z</time></trkpt><trkpt lat="40.36965148516777" lon="9.661028489898195"><ele>211.4</ele><time>2026-04-30T06:59:10.877Z</time></trkpt><trkpt lat="40.36964460727656" lon="9.66112619265261"><ele>207.2</ele><time>2026-04-30T06:59:11.877Z</time></trkpt><trkpt lat="40.36963660714507" lon="9.661239724323952"><ele>203.0</ele><time>2026-04-30T06:59:12.877Z</time></trkpt><trkpt lat="40.36963636877758" lon="9.661389444476104"><ele>202.2</ele><time>2026-04-30T06:59:13.877Z</time></trkpt><trkpt lat="40.36963113358669" lon="9.661528141613603"><ele>201.4</ele><time>2026-04-30T06:59:14.877Z</time></trkpt><trkpt lat="40.3696184750254" lon="9.66165232864374"><ele>200.6</ele><time>2026-04-30T06:59:15.877Z</time></trkpt><trkpt lat="40.36959841403727" lon="9.661759135818258"><ele>199.79999999999998</ele><time>2026-04-30T06:59:16.877Z</time></trkpt><trkpt lat="40.36958099743547" lon="9.661860572454172"><ele>199.0</ele><time>2026-04-30T06:59:17.877Z</time></trkpt><trkpt lat="40.36954461444264" lon="9.66197449232697"><ele>199.0</ele><time>2026-04-30T06:59:19.877Z</time></trkpt><trkpt lat="40.369515781341114" lon="9.662074993024143"><ele>199.0</ele><time>2026-04-30T06:59:23.877Z</time></trkpt><trkpt lat="40.369478541508435" lon="9.66217178689405"><ele>199.0</ele><time>2026-04-30T06:59:27.877Z</time></trkpt><trkpt lat="40.369456577567306" lon="9.66231809110293"><ele>199.0</ele><time>2026-04-30T06:59:30.877Z</time></trkpt><trkpt lat="40.36946116670067" lon="9.662467309612746"><ele>199.0</ele><time>2026-04-30T06:59:32.877Z</time></trkpt><trkpt lat="40.36946672892953" lon="9.662562202594755"><ele>199.0</ele><time>2026-04-30T06:59:33.877Z</time></trkpt><trkpt lat="40.36946160910523" lon="9.662677932732818"><ele>199.0</ele><time>2026-04-30T06:59:34.877Z</time></trkpt><trkpt lat="40.369490762861744" lon="9.662803297707127"><ele>199.0</ele><time>2026-04-30T06:59:35.877Z</time></trkpt><trkpt lat="40.36950087440055" lon="9.662938944852732"><ele>199.0</ele><time>2026-04-30T06:59:36.877Z</time></trkpt><trkpt lat="40.36950904926333" lon="9.663062912087069"><ele>199.0</ele><time>2026-04-30T06:59:37.877Z</time></trkpt><trkpt lat="40.36951347240743" lon="9.663167747406032"><ele>198.33333333333331</ele><time>2026-04-30T06:59:38.877Z</time></trkpt><trkpt lat="40.36951716248531" lon="9.663257051851538"><ele>197.66666666666666</ele><time>2026-04-30T06:59:39.877Z</time></trkpt><trkpt lat="40.36952163676111" lon="9.663353747660388"><ele>197.0</ele><time>2026-04-30T06:59:40.877Z</time></trkpt><trkpt lat="40.36953057785314" lon="9.66347344409908"><ele>196.33333333333331</ele><time>2026-04-30T06:59:41.876Z</time></trkpt><trkpt lat="40.369535284765306" lon="9.66359279919115"><ele>195.66666666666666</ele><time>2026-04-30T06:59:42.876Z</time></trkpt><trkpt lat="40.369544804258105" lon="9.66370338226468"><ele>195.0</ele><time>2026-04-30T06:59:43.876Z</time></trkpt><trkpt lat="40.3695564028836" lon="9.663822111235225"><ele>193.66666666666666</ele><time>2026-04-30T06:59:44.876Z</time></trkpt><trkpt lat="40.36958050575162" lon="9.663948459873861"><ele>192.33333333333334</ele><time>2026-04-30T06:59:45.876Z</time></trkpt><trkpt lat="40.36961239110744" lon="9.66408536632719"><ele>191.0</ele><time>2026-04-30T06:59:46.876Z</time></trkpt><trkpt lat="40.369633343237915" lon="9.66418945049083"><ele>189.66666666666669</ele><time>2026-04-30T06:59:47.876Z</time></trkpt><trkpt lat="40.36965466128606" lon="9.664278477960217"><ele>188.33333333333334</ele><time>2026-04-30T06:59:48.876Z</time></trkpt><trkpt lat="40.36967557070929" lon="9.664382722108899"><ele>187.0</ele><time>2026-04-30T06:59:49.876Z</time></trkpt><trkpt lat="40.36969805574481" lon="9.664498716084394"><ele>185.85714285714286</ele><time>2026-04-30T06:59:50.876Z</time></trkpt><trkpt lat="40.369724642702934" lon="9.664596485017944"><ele>184.71428571428572</ele><time>2026-04-30T06:59:51.875Z</time></trkpt><trkpt lat="40.36974066400929" lon="9.664682819117756"><ele>183.57142857142858</ele><time>2026-04-30T06:59:52.875Z</time></trkpt><trkpt lat="40.36976141578922" lon="9.664771424514607"><ele>182.42857142857144</ele><time>2026-04-30T06:59:53.875Z</time></trkpt><trkpt lat="40.36977908599329" lon="9.66485959277592"><ele>181.28571428571428</ele><time>2026-04-30T06:59:54.875Z</time></trkpt><trkpt lat="40.36980536949042" lon="9.664944616184378"><ele>180.14285714285717</ele><time>2026-04-30T06:59:55.875Z</time></trkpt><trkpt lat="40.36983904071846" lon="9.665034860931874"><ele>179.0</ele><time>2026-04-30T06:59:56.875Z</time></trkpt><trkpt lat="40.3698789286914" lon="9.66513123669594"><ele>179.0</ele><time>2026-04-30T06:59:57.875Z</time></trkpt><trkpt lat="40.369911067676064" lon="9.665220425184469"><ele>179.0</ele><time>2026-04-30T06:59:58.875Z</time></trkpt><trkpt lat="40.36994375255684" lon="9.665305368862295"><ele>179.0</ele><time>2026-04-30T06:59:59.875Z</time></trkpt><trkpt lat="40.36997410444193" lon="9.665388976023015"><ele>179.0</ele><time>2026-04-30T07:00:00.875Z</time></trkpt><trkpt lat="40.37000765963612" lon="9.665477025391601"><ele>179.0</ele><time>2026-04-30T07:00:01.874Z</time></trkpt><trkpt lat="40.370068845296565" lon="9.66560107608163"><ele>179.0</ele><time>2026-04-30T07:00:03.875Z</time></trkpt><trkpt lat="40.370118243959986" lon="9.665669973180332"><ele>177.16666666666666</ele><time>2026-04-30T07:00:04.874Z</time></trkpt><trkpt lat="40.370173585554966" lon="9.665746904790721"><ele>175.33333333333331</ele><time>2026-04-30T07:00:05.874Z</time></trkpt><trkpt lat="40.37023366871431" lon="9.665828567274849"><ele>173.5</ele><time>2026-04-30T07:00:06.874Z</time></trkpt><trkpt lat="40.370289556444504" lon="9.66591221213993"><ele>171.66666666666666</ele><time>2026-04-30T07:00:07.874Z</time></trkpt><trkpt lat="40.37034759288733" lon="9.665990981387887"><ele>169.83333333333334</ele><time>2026-04-30T07:00:08.874Z</time></trkpt><trkpt lat="40.37040249837705" lon="9.66606582392506"><ele>168.0</ele><time>2026-04-30T07:00:09.874Z</time></trkpt><trkpt lat="40.37046320353228" lon="9.666156129495953"><ele>165.83333333333334</ele><time>2026-04-30T07:00:10.874Z</time></trkpt><trkpt lat="40.37052710594961" lon="9.666239221966837"><ele>163.66666666666666</ele><time>2026-04-30T07:00:11.874Z</time></trkpt><trkpt lat="40.370588493574765" lon="9.66632107664649"><ele>161.5</ele><time>2026-04-30T07:00:12.874Z</time></trkpt><trkpt lat="40.37065266233515" lon="9.666396115326627"><ele>159.33333333333331</ele><time>2026-04-30T07:00:13.874Z</time></trkpt><trkpt lat="40.37071773383912" lon="9.66646811197441"><ele>157.16666666666666</ele><time>2026-04-30T07:00:14.874Z</time></trkpt><trkpt lat="40.370791662114286" lon="9.666534374656296"><ele>155.0</ele><time>2026-04-30T07:00:15.874Z</time></trkpt><trkpt lat="40.37085979565842" lon="9.666584136657487"><ele>155.0</ele><time>2026-04-30T07:00:16.874Z</time></trkpt><trkpt lat="40.37092275119481" lon="9.666644328936995"><ele>155.0</ele><time>2026-04-30T07:00:17.874Z</time></trkpt><trkpt lat="40.370985529667244" lon="9.666707773288001"><ele>155.0</ele><time>2026-04-30T07:00:18.874Z</time></trkpt><trkpt lat="40.37106401810707" lon="9.666803427755058"><ele>155.0</ele><time>2026-04-30T07:00:20.874Z</time></trkpt><trkpt lat="40.37110147339067" lon="9.666938107901263"><ele>155.0</ele><time>2026-04-30T07:00:22.874Z</time></trkpt><trkpt lat="40.37112412194479" lon="9.667026342188295"><ele>155.0</ele><time>2026-04-30T07:00:23.874Z</time></trkpt><trkpt lat="40.37115137341104" lon="9.667117938035878"><ele>153.5</ele><time>2026-04-30T07:00:24.874Z</time></trkpt><trkpt lat="40.37118082802919" lon="9.66721118275229"><ele>152.0</ele><time>2026-04-30T07:00:25.874Z</time></trkpt><trkpt lat="40.37120937491527" lon="9.667295424882116"><ele>150.5</ele><time>2026-04-30T07:00:26.874Z</time></trkpt><trkpt lat="40.37124321752886" lon="9.667389774528184"><ele>149.0</ele><time>2026-04-30T07:00:27.874Z</time></trkpt><trkpt lat="40.37127694904768" lon="9.667486134002935"><ele>147.5</ele><time>2026-04-30T07:00:28.874Z</time></trkpt><trkpt lat="40.37131082073325" lon="9.667573345984042"><ele>146.0</ele><time>2026-04-30T07:00:29.874Z</time></trkpt><trkpt lat="40.37134597004301" lon="9.667657269043925"><ele>145.14285714285714</ele><time>2026-04-30T07:00:30.874Z</time></trkpt><trkpt lat="40.371389286987096" lon="9.667733210689889"><ele>144.28571428571428</ele><time>2026-04-30T07:00:31.874Z</time></trkpt><trkpt lat="40.371433132350155" lon="9.667812680406222"><ele>143.42857142857144</ele><time>2026-04-30T07:00:32.874Z</time></trkpt><trkpt lat="40.371466279554625" lon="9.667895256765487"><ele>142.57142857142856</ele><time>2026-04-30T07:00:33.874Z</time></trkpt><trkpt lat="40.37149821505463" lon="9.667994593563659"><ele>141.71428571428572</ele><time>2026-04-30T07:00:34.874Z</time></trkpt><trkpt lat="40.37152675114391" lon="9.668084264885197"><ele>140.85714285714286</ele><time>2026-04-30T07:00:35.873Z</time></trkpt><trkpt lat="40.37155037862695" lon="9.668177668903425"><ele>140.0</ele><time>2026-04-30T07:00:36.873Z</time></trkpt><trkpt lat="40.37157551787725" lon="9.668271569396627"><ele>138.5</ele><time>2026-04-30T07:00:37.873Z</time></trkpt><trkpt lat="40.371605955829516" lon="9.668372787889073"><ele>137.0</ele><time>2026-04-30T07:00:38.873Z</time></trkpt><trkpt lat="40.371644262022386" lon="9.668466004328215"><ele>135.5</ele><time>2026-04-30T07:00:39.873Z</time></trkpt><trkpt lat="40.3716800795764" lon="9.668557932323957"><ele>134.0</ele><time>2026-04-30T07:00:40.873Z</time></trkpt><trkpt lat="40.371718518101694" lon="9.668645952125864"><ele>132.5</ele><time>2026-04-30T07:00:41.873Z</time></trkpt><trkpt lat="40.37174504114693" lon="9.668733985901868"><ele>131.0</ele><time>2026-04-30T07:00:42.873Z</time></trkpt><trkpt lat="40.3717530075566" lon="9.668823939058838"><ele>129.83333333333331</ele><time>2026-04-30T07:00:43.873Z</time></trkpt><trkpt lat="40.37175141291422" lon="9.668926231336664"><ele>128.66666666666666</ele><time>2026-04-30T07:00:44.873Z</time></trkpt><trkpt lat="40.37174876086504" lon="9.669027605464915"><ele>127.5</ele><time>2026-04-30T07:00:45.873Z</time></trkpt><trkpt lat="40.371740514214224" lon="9.66914604340887"><ele>126.33333333333334</ele><time>2026-04-30T07:00:46.873Z</time></trkpt><trkpt lat="40.37173689613297" lon="9.669253787048907"><ele>125.16666666666667</ele><time>2026-04-30T07:00:47.873Z</time></trkpt><trkpt lat="40.371742729473006" lon="9.66936128948406"><ele>124.0</ele><time>2026-04-30T07:00:48.873Z</time></trkpt><trkpt lat="40.371760235340346" lon="9.669464430135237"><ele>122.83333333333334</ele><time>2026-04-30T07:00:49.873Z</time></trkpt><trkpt lat="40.371787183891584" lon="9.669583841169008"><ele>121.66666666666667</ele><time>2026-04-30T07:00:50.873Z</time></trkpt><trkpt lat="40.37181296812216" lon="9.669683845459385"><ele>120.5</ele><time>2026-04-30T07:00:51.873Z</time></trkpt><trkpt lat="40.371839179867685" lon="9.669776042413265"><ele>119.33333333333334</ele><time>2026-04-30T07:00:52.873Z</time></trkpt><trkpt lat="40.37186977112589" lon="9.66986643414426"><ele>118.16666666666667</ele><time>2026-04-30T07:00:53.873Z</time></trkpt><trkpt lat="40.37190810443297" lon="9.669948881815325"><ele>117.0</ele><time>2026-04-30T07:00:54.873Z</time></trkpt><trkpt lat="40.37194975509498" lon="9.670029496099508"><ele>117.0</ele><time>2026-04-30T07:00:55.873Z</time></trkpt><trkpt lat="40.37200575108924" lon="9.670103475682138"><ele>117.0</ele><time>2026-04-30T07:00:56.873Z</time></trkpt><trkpt lat="40.37206314710748" lon="9.670178787669567"><ele>117.0</ele><time>2026-04-30T07:00:57.873Z</time></trkpt><trkpt lat="40.37211890730278" lon="9.670265399126006"><ele>117.0</ele><time>2026-04-30T07:00:58.873Z</time></trkpt><trkpt lat="40.37216219229449" lon="9.670353025748343"><ele>117.0</ele><time>2026-04-30T07:00:59.873Z</time></trkpt><trkpt lat="40.3722164658131" lon="9.67045830230232"><ele>117.0</ele><time>2026-04-30T07:01:00.873Z</time></trkpt><trkpt lat="40.37225845568081" lon="9.670556241428102"><ele>116.39999999999999</ele><time>2026-04-30T07:01:01.873Z</time></trkpt><trkpt lat="40.372307431108" lon="9.670645002706435"><ele>115.79999999999998</ele><time>2026-04-30T07:01:02.873Z</time></trkpt><trkpt lat="40.372376185100435" lon="9.670743625181164"><ele>115.2</ele><time>2026-04-30T07:01:03.873Z</time></trkpt><trkpt lat="40.37244575891493" lon="9.670839456128125"><ele>114.6</ele><time>2026-04-30T07:01:04.873Z</time></trkpt><trkpt lat="40.372509834631515" lon="9.67093589525117"><ele>114.0</ele><time>2026-04-30T07:01:05.873Z</time></trkpt><trkpt lat="40.372581276514055" lon="9.67103105812402"><ele>112.2</ele><time>2026-04-30T07:01:06.873Z</time></trkpt><trkpt lat="40.37264696240046" lon="9.671132747737063"><ele>110.4</ele><time>2026-04-30T07:01:07.873Z</time></trkpt><trkpt lat="40.37271755457893" lon="9.671226618315098"><ele>108.6</ele><time>2026-04-30T07:01:08.873Z</time></trkpt><trkpt lat="40.37279441263333" lon="9.671319651975672"><ele>106.8</ele><time>2026-04-30T07:01:09.873Z</time></trkpt><trkpt lat="40.372862074699846" lon="9.671408753131205"><ele>105.0</ele><time>2026-04-30T07:01:10.873Z</time></trkpt><trkpt lat="40.3729192517412" lon="9.671491931558801"><ele>105.0</ele><time>2026-04-30T07:01:11.873Z</time></trkpt><trkpt lat="40.372961528325796" lon="9.671553684416322"><ele>105.0</ele><time>2026-04-30T07:01:12.873Z</time></trkpt><trkpt lat="40.37299453899276" lon="9.671626433179117"><ele>105.0</ele><time>2026-04-30T07:01:13.873Z</time></trkpt><trkpt lat="40.37306410931994" lon="9.671745238199863"><ele>105.0</ele><time>2026-04-30T07:01:15.872Z</time></trkpt><trkpt lat="40.37312043621657" lon="9.671927368871703"><ele>105.0</ele><time>2026-04-30T07:01:17.872Z</time></trkpt><trkpt lat="40.37314292031195" lon="9.672064119968468"><ele>103.8</ele><time>2026-04-30T07:01:18.872Z</time></trkpt><trkpt lat="40.373164747252666" lon="9.672196320925483"><ele>102.6</ele><time>2026-04-30T07:01:19.872Z</time></trkpt><trkpt lat="40.37319136309041" lon="9.672315748890474"><ele>101.4</ele><time>2026-04-30T07:01:20.872Z</time></trkpt><trkpt lat="40.37321743909969" lon="9.67243409225952"><ele>100.2</ele><time>2026-04-30T07:01:21.872Z</time></trkpt><trkpt lat="40.37324552499136" lon="9.672548580289687"><ele>99.0</ele><time>2026-04-30T07:01:22.872Z</time></trkpt><trkpt lat="40.37327553978266" lon="9.672656558077243"><ele>99.0</ele><time>2026-04-30T07:01:23.872Z</time></trkpt><trkpt lat="40.37330515147734" lon="9.672765199710671"><ele>99.0</ele><time>2026-04-30T07:01:24.872Z</time></trkpt><trkpt lat="40.37332159069476" lon="9.672875077218336"><ele>99.0</ele><time>2026-04-30T07:01:25.872Z</time></trkpt><trkpt lat="40.373359579405594" lon="9.672988119964394"><ele>99.0</ele><time>2026-04-30T07:01:26.872Z</time></trkpt><trkpt lat="40.37340217374266" lon="9.673108042928883"><ele>99.0</ele><time>2026-04-30T07:01:27.872Z</time></trkpt><trkpt lat="40.373448566140084" lon="9.67323463643879"><ele>98.0</ele><time>2026-04-30T07:01:28.872Z</time></trkpt><trkpt lat="40.373497221555596" lon="9.673356246784223"><ele>97.0</ele><time>2026-04-30T07:01:29.872Z</time></trkpt><trkpt lat="40.3735413283738" lon="9.673469692731858"><ele>96.0</ele><time>2026-04-30T07:01:30.872Z</time></trkpt><trkpt lat="40.37358543862633" lon="9.673584424075102"><ele>95.0</ele><time>2026-04-30T07:01:31.872Z</time></trkpt><trkpt lat="40.37362776745767" lon="9.673695150827443"><ele>94.0</ele><time>2026-04-30T07:01:32.872Z</time></trkpt><trkpt lat="40.37366914967699" lon="9.67381007707177"><ele>92.75</ele><time>2026-04-30T07:01:33.872Z</time></trkpt><trkpt lat="40.37370986591018" lon="9.67392843825231"><ele>91.5</ele><time>2026-04-30T07:01:34.872Z</time></trkpt><trkpt lat="40.373759025044826" lon="9.674068610597809"><ele>90.25</ele><time>2026-04-30T07:01:35.872Z</time></trkpt><trkpt lat="40.37382755281948" lon="9.6742025022685"><ele>89.0</ele><time>2026-04-30T07:01:36.872Z</time></trkpt><trkpt lat="40.37389361526211" lon="9.674344941481248"><ele>87.5</ele><time>2026-04-30T07:01:37.872Z</time></trkpt><trkpt lat="40.37396458506229" lon="9.674479534156996"><ele>86.0</ele><time>2026-04-30T07:01:38.872Z</time></trkpt><trkpt lat="40.37402493658041" lon="9.674612805312208"><ele>84.5</ele><time>2026-04-30T07:01:39.872Z</time></trkpt><trkpt lat="40.374080482697735" lon="9.674739363137283"><ele>83.0</ele><time>2026-04-30T07:01:40.872Z</time></trkpt><trkpt lat="40.37413068270341" lon="9.67488925858199"><ele>83.0</ele><time>2026-04-30T07:01:41.872Z</time></trkpt><trkpt lat="40.37419043225246" lon="9.675021032588944"><ele>83.0</ele><time>2026-04-30T07:01:42.872Z</time></trkpt><trkpt lat="40.37425356732457" lon="9.675151529974103"><ele>83.0</ele><time>2026-04-30T07:01:43.872Z</time></trkpt><trkpt lat="40.37430014938092" lon="9.67524781258712"><ele>83.0</ele><time>2026-04-30T07:01:44.872Z</time></trkpt><trkpt lat="40.37434300796127" lon="9.675336399077525"><ele>83.0</ele><time>2026-04-30T07:01:45.872Z</time></trkpt><trkpt lat="40.374396000258926" lon="9.675435591810473"><ele>82.16666666666667</ele><time>2026-04-30T07:01:46.872Z</time></trkpt><trkpt lat="40.37442752760402" lon="9.675517591226763"><ele>81.33333333333334</ele><time>2026-04-30T07:01:47.872Z</time></trkpt><trkpt lat="40.37448149406149" lon="9.675635819301064"><ele>80.5</ele><time>2026-04-30T07:01:49.872Z</time></trkpt><trkpt lat="40.37454272454728" lon="9.675717062142853"><ele>79.66666666666667</ele><time>2026-04-30T07:01:50.872Z</time></trkpt><trkpt lat="40.374577612388734" lon="9.675797083560878"><ele>78.83333333333333</ele><time>2026-04-30T07:01:51.872Z</time></trkpt><trkpt lat="40.37460722143637" lon="9.675885879676617"><ele>78.0</ele><time>2026-04-30T07:01:52.872Z</time></trkpt><trkpt lat="40.37461065782836" lon="9.67598476408891"><ele>78.0</ele><time>2026-04-30T07:01:53.872Z</time></trkpt><trkpt lat="40.374625143930906" lon="9.676089347696628"><ele>78.0</ele><time>2026-04-30T07:01:54.872Z</time></trkpt><trkpt lat="40.374638919635075" lon="9.676174447554853"><ele>78.0</ele><time>2026-04-30T07:01:55.871Z</time></trkpt><trkpt lat="40.374631586429686" lon="9.676267362073727"><ele>78.0</ele><time>2026-04-30T07:01:56.871Z</time></trkpt><trkpt lat="40.374651485556015" lon="9.676355361749541"><ele>78.0</ele><time>2026-04-30T07:01:57.871Z</time></trkpt><trkpt lat="40.37466827130335" lon="9.676449505175256"><ele>78.0</ele><time>2026-04-30T07:01:58.871Z</time></trkpt><trkpt lat="40.3747299799305" lon="9.676652871788068"><ele>76.8</ele><time>2026-04-30T07:01:59.871Z</time></trkpt><trkpt lat="40.37475115838525" lon="9.67677531541086"><ele>75.6</ele><time>2026-04-30T07:02:00.871Z</time></trkpt><trkpt lat="40.37477473763814" lon="9.676897938467933"><ele>74.4</ele><time>2026-04-30T07:02:01.87Z</time></trkpt><trkpt lat="40.374797127291416" lon="9.677020425714947"><ele>73.2</ele><time>2026-04-30T07:02:02.87Z</time></trkpt><trkpt lat="40.374812294062004" lon="9.677144175453838"><ele>72.0</ele><time>2026-04-30T07:02:03.871Z</time></trkpt><trkpt lat="40.37481566702821" lon="9.677265815151172"><ele>71.5</ele><time>2026-04-30T07:02:04.87Z</time></trkpt><trkpt lat="40.37481929038709" lon="9.677384728841645"><ele>71.0</ele><time>2026-04-30T07:02:05.869Z</time></trkpt><trkpt lat="40.374822596101424" lon="9.677484173322322"><ele>70.5</ele><time>2026-04-30T07:02:06.867Z</time></trkpt><trkpt lat="40.37482910885263" lon="9.67758150803411"><ele>70.0</ele><time>2026-04-30T07:02:07.867Z</time></trkpt><trkpt lat="40.37484490731851" lon="9.677675453272911"><ele>69.5</ele><time>2026-04-30T07:02:08.866Z</time></trkpt><trkpt lat="40.374864650184655" lon="9.677783311672403"><ele>69.0</ele><time>2026-04-30T07:02:09.865Z</time></trkpt><trkpt lat="40.374900791021496" lon="9.677885047503375"><ele>68.33333333333333</ele><time>2026-04-30T07:02:10.863Z</time></trkpt><trkpt lat="40.374933863545856" lon="9.67797716544103"><ele>67.66666666666667</ele><time>2026-04-30T07:02:11.863Z</time></trkpt><trkpt lat="40.374971233374204" lon="9.678080720562084"><ele>67.0</ele><time>2026-04-30T07:02:12.862Z</time></trkpt><trkpt lat="40.3750102930404" lon="9.678197224830702"><ele>66.33333333333334</ele><time>2026-04-30T07:02:13.861Z</time></trkpt><trkpt lat="40.37504131093107" lon="9.67830429495997"><ele>65.66666666666667</ele><time>2026-04-30T07:02:14.861Z</time></trkpt><trkpt lat="40.375067848230934" lon="9.678397062387859"><ele>65.0</ele><time>2026-04-30T07:02:15.86Z</time></trkpt><trkpt lat="40.37508902004434" lon="9.678475936421785"><ele>65.0</ele><time>2026-04-30T07:02:16.859Z</time></trkpt><trkpt lat="40.375063370955004" lon="9.678564191371077"><ele>65.0</ele><time>2026-04-30T07:02:17.859Z</time></trkpt><trkpt lat="40.375059945372435" lon="9.678663107779544"><ele>65.0</ele><time>2026-04-30T07:02:18.858Z</time></trkpt><trkpt lat="40.3750524244007" lon="9.67878281037574"><ele>65.0</ele><time>2026-04-30T07:02:19.858Z</time></trkpt><trkpt lat="40.375062250586446" lon="9.678922106851957"><ele>65.0</ele><time>2026-04-30T07:02:20.857Z</time></trkpt><trkpt lat="40.375058392611415" lon="9.67905136729678"><ele>65.0</ele><time>2026-04-30T07:02:21.857Z</time></trkpt><trkpt lat="40.37504935735732" lon="9.679188416325742"><ele>64.4</ele><time>2026-04-30T07:02:22.857Z</time></trkpt><trkpt lat="40.375078860317615" lon="9.67932519555026"><ele>63.8</ele><time>2026-04-30T07:02:23.856Z</time></trkpt><trkpt lat="40.37508229711214" lon="9.679457016024314"><ele>63.2</ele><time>2026-04-30T07:02:24.856Z</time></trkpt><trkpt lat="40.37510072427795" lon="9.679608222526408"><ele>62.6</ele><time>2026-04-30T07:02:25.855Z</time></trkpt><trkpt lat="40.37511309401457" lon="9.679752613435445"><ele>62.0</ele><time>2026-04-30T07:02:26.855Z</time></trkpt><trkpt lat="40.37512812420361" lon="9.67989386548514"><ele>61.2</ele><time>2026-04-30T07:02:27.855Z</time></trkpt><trkpt lat="40.375143892733504" lon="9.68003241778614"><ele>60.400000000000006</ele><time>2026-04-30T07:02:28.855Z</time></trkpt><trkpt lat="40.37515391119977" lon="9.680163425064514"><ele>59.599999999999994</ele><time>2026-04-30T07:02:29.854Z</time></trkpt><trkpt lat="40.375167266257776" lon="9.680286376750525"><ele>58.8</ele><time>2026-04-30T07:02:30.854Z</time></trkpt><trkpt lat="40.37518047099472" lon="9.680405886850206"><ele>58.0</ele><time>2026-04-30T07:02:31.854Z</time></trkpt><trkpt lat="40.37519579604835" lon="9.68050350613971"><ele>57.33333333333333</ele><time>2026-04-30T07:02:32.854Z</time></trkpt><trkpt lat="40.37521152304944" lon="9.680599410467556"><ele>56.666666666666664</ele><time>2026-04-30T07:02:33.853Z</time></trkpt><trkpt lat="40.37521926841439" lon="9.680681579539822"><ele>56.0</ele><time>2026-04-30T07:02:34.853Z</time></trkpt><trkpt lat="40.37523214710829" lon="9.680781094145402"><ele>55.33333333333333</ele><time>2026-04-30T07:02:36.853Z</time></trkpt><trkpt lat="40.375256202466744" lon="9.680894343345491"><ele>54.666666666666664</ele><time>2026-04-30T07:02:39.852Z</time></trkpt><trkpt lat="40.37526307684009" lon="9.6810164900488"><ele>54.0</ele><time>2026-04-30T07:06:50.841Z</time></trkpt><trkpt lat="40.37521297774757" lon="9.68116157128126"><ele>54.0</ele><time>2026-04-30T07:06:52.841Z</time></trkpt><trkpt lat="40.37516446987049" lon="9.68123605580287"><ele>54.0</ele><time>2026-04-30T07:06:53.841Z</time></trkpt><trkpt lat="40.37511219073851" lon="9.681307092972714"><ele>54.0</ele><time>2026-04-30T07:06:54.841Z</time></trkpt><trkpt lat="40.37507126170394" lon="9.681381918249068"><ele>54.0</ele><time>2026-04-30T07:06:55.841Z</time></trkpt><trkpt lat="40.37505601953638" lon="9.681523860883482"><ele>54.0</ele><time>2026-04-30T07:06:57.841Z</time></trkpt><trkpt lat="40.375095598659684" lon="9.681608783610264"><ele>54.0</ele><time>2026-04-30T07:06:58.841Z</time></trkpt><trkpt lat="40.37513512286569" lon="9.681688580209173"><ele>54.0</ele><time>2026-04-30T07:06:59.841Z</time></trkpt><trkpt lat="40.375186312024034" lon="9.681766541864405"><ele>54.0</ele><time>2026-04-30T07:07:00.841Z</time></trkpt><trkpt lat="40.375246633322185" lon="9.681852956893874"><ele>54.0</ele><time>2026-04-30T07:07:01.841Z</time></trkpt><trkpt lat="40.3752897427629" lon="9.681938263475345"><ele>54.0</ele><time>2026-04-30T07:07:02.841Z</time></trkpt><trkpt lat="40.37532682911707" lon="9.682034870678018"><ele>54.0</ele><time>2026-04-30T07:07:03.841Z</time></trkpt><trkpt lat="40.37535649781854" lon="9.682144948498705"><ele>54.0</ele><time>2026-04-30T07:07:04.841Z</time></trkpt><trkpt lat="40.37538023137259" lon="9.682240788695633"><ele>54.0</ele><time>2026-04-30T07:07:05.841Z</time></trkpt><trkpt lat="40.37540315985203" lon="9.682346355028754"><ele>54.00000000000001</ele><time>2026-04-30T07:07:06.841Z</time></trkpt><trkpt lat="40.375438125842734" lon="9.682469768523971"><ele>54.00000000000001</ele><time>2026-04-30T07:07:07.841Z</time></trkpt><trkpt lat="40.37546263028877" lon="9.682594092230941"><ele>54.0</ele><time>2026-04-30T07:07:08.841Z</time></trkpt><trkpt lat="40.37549129013776" lon="9.682724852084869"><ele>54.0</ele><time>2026-04-30T07:07:09.841Z</time></trkpt><trkpt lat="40.375523381191236" lon="9.682856160016277"><ele>51.6</ele><time>2026-04-30T07:07:10.841Z</time></trkpt><trkpt lat="40.375546269716835" lon="9.68299187088174"><ele>49.2</ele><time>2026-04-30T07:07:11.841Z</time></trkpt><trkpt lat="40.3755764247251" lon="9.683130740276324"><ele>46.800000000000004</ele><time>2026-04-30T07:07:12.841Z</time></trkpt><trkpt lat="40.37560547195592" lon="9.683269898745307"><ele>44.400000000000006</ele><time>2026-04-30T07:07:13.841Z</time></trkpt><trkpt lat="40.37562794465138" lon="9.683408636379443"><ele>42.0</ele><time>2026-04-30T07:07:14.841Z</time></trkpt><trkpt lat="40.3756572045646" lon="9.683551126449121"><ele>41.75</ele><time>2026-04-30T07:07:15.84Z</time></trkpt><trkpt lat="40.37568739505814" lon="9.683700151540117"><ele>41.5</ele><time>2026-04-30T07:07:16.84Z</time></trkpt><trkpt lat="40.37572039866324" lon="9.683849439586359"><ele>41.25</ele><time>2026-04-30T07:07:17.84Z</time></trkpt><trkpt lat="40.375752705990934" lon="9.684003397198186"><ele>41.0</ele><time>2026-04-30T07:07:18.84Z</time></trkpt><trkpt lat="40.3757874691056" lon="9.684161981783095"><ele>41.0</ele><time>2026-04-30T07:07:19.84Z</time></trkpt><trkpt lat="40.37582470129152" lon="9.684324871105531"><ele>41.0</ele><time>2026-04-30T07:07:20.84Z</time></trkpt><trkpt lat="40.375851282868126" lon="9.684492905157958"><ele>41.0</ele><time>2026-04-30T07:07:21.84Z</time></trkpt><trkpt lat="40.375891854061464" lon="9.684667835393869"><ele>41.0</ele><time>2026-04-30T07:07:22.84Z</time></trkpt><trkpt lat="40.375930706431866" lon="9.68485730770834"><ele>40.33333333333333</ele><time>2026-04-30T07:07:23.84Z</time></trkpt><trkpt lat="40.37596909976386" lon="9.685051173501497"><ele>39.666666666666664</ele><time>2026-04-30T07:07:24.84Z</time></trkpt><trkpt lat="40.376009531385435" lon="9.685249385880908"><ele>39.0</ele><time>2026-04-30T07:07:25.84Z</time></trkpt><trkpt lat="40.37605225245922" lon="9.685448375833673"><ele>38.25</ele><time>2026-04-30T07:07:26.84Z</time></trkpt><trkpt lat="40.376090412268695" lon="9.685644552061783"><ele>37.5</ele><time>2026-04-30T07:07:27.84Z</time></trkpt><trkpt lat="40.37613223486483" lon="9.68583185574936"><ele>36.75</ele><time>2026-04-30T07:07:28.84Z</time></trkpt><trkpt lat="40.376165982805674" lon="9.686013437758103"><ele>36.0</ele><time>2026-04-30T07:07:29.84Z</time></trkpt><trkpt lat="40.376204186624584" lon="9.686186423856741"><ele>34.5</ele><time>2026-04-30T07:07:30.84Z</time></trkpt><trkpt lat="40.37623022366584" lon="9.686353026717812"><ele>33.0</ele><time>2026-04-30T07:07:31.84Z</time></trkpt><trkpt lat="40.37624947499511" lon="9.686516543952639"><ele>31.5</ele><time>2026-04-30T07:07:32.84Z</time></trkpt><trkpt lat="40.376254286177605" lon="9.686686500852371"><ele>30.0</ele><time>2026-04-30T07:07:33.84Z</time></trkpt><trkpt lat="40.376246472638236" lon="9.686866970403834"><ele>29.5</ele><time>2026-04-30T07:07:34.84Z</time></trkpt><trkpt lat="40.376234476198064" lon="9.687038654149623"><ele>29.0</ele><time>2026-04-30T07:07:35.84Z</time></trkpt><trkpt lat="40.37621579817356" lon="9.68722306731165"><ele>28.5</ele><time>2026-04-30T07:07:36.84Z</time></trkpt><trkpt lat="40.37620412168416" lon="9.687403540692525"><ele>28.0</ele><time>2026-04-30T07:07:37.84Z</time></trkpt><trkpt lat="40.37618124116372" lon="9.687591478196326"><ele>27.0</ele><time>2026-04-30T07:07:38.84Z</time></trkpt><trkpt lat="40.376157700350596" lon="9.687780213680592"><ele>26.0</ele><time>2026-04-30T07:07:39.84Z</time></trkpt><trkpt lat="40.37613370578673" lon="9.687973025977051"><ele>25.0</ele><time>2026-04-30T07:07:40.84Z</time></trkpt><trkpt lat="40.376112139152355" lon="9.688163450849684"><ele>24.0</ele><time>2026-04-30T07:07:41.84Z</time></trkpt><trkpt lat="40.37608779044687" lon="9.688349832378968"><ele>24.0</ele><time>2026-04-30T07:07:42.84Z</time></trkpt><trkpt lat="40.376060638228616" lon="9.688536586938868"><ele>24.0</ele><time>2026-04-30T07:07:43.84Z</time></trkpt><trkpt lat="40.3760316067074" lon="9.68872185732854"><ele>24.0</ele><time>2026-04-30T07:07:44.84Z</time></trkpt><trkpt lat="40.376009041216776" lon="9.688901187658004"><ele>24.0</ele><time>2026-04-30T07:07:45.84Z</time></trkpt><trkpt lat="40.37598756597025" lon="9.68908538622051"><ele>23.25</ele><time>2026-04-30T07:07:46.84Z</time></trkpt><trkpt lat="40.37596730507801" lon="9.689266252263751"><ele>22.5</ele><time>2026-04-30T07:07:47.84Z</time></trkpt><trkpt lat="40.375944688206005" lon="9.68945047695983"><ele>21.75</ele><time>2026-04-30T07:07:48.839Z</time></trkpt><trkpt lat="40.37591959850001" lon="9.689643497791872"><ele>21.0</ele><time>2026-04-30T07:07:49.839Z</time></trkpt><trkpt lat="40.37589374869263" lon="9.689831668896932"><ele>20.5</ele><time>2026-04-30T07:07:50.839Z</time></trkpt><trkpt lat="40.37586677970436" lon="9.689999715937999"><ele>20.0</ele><time>2026-04-30T07:07:51.839Z</time></trkpt><trkpt lat="40.375849478618385" lon="9.690160612828937"><ele>19.5</ele><time>2026-04-30T07:07:52.839Z</time></trkpt><trkpt lat="40.37584743343226" lon="9.690311777906528"><ele>19.0</ele><time>2026-04-30T07:07:53.839Z</time></trkpt><trkpt lat="40.37586492896081" lon="9.690476790104931"><ele>18.599999999999998</ele><time>2026-04-30T07:07:54.839Z</time></trkpt><trkpt lat="40.37587000307069" lon="9.690623837038542"><ele>18.2</ele><time>2026-04-30T07:07:55.839Z</time></trkpt><trkpt lat="40.37592734120521" lon="9.690737842802012"><ele>17.799999999999997</ele><time>2026-04-30T07:07:56.839Z</time></trkpt><trkpt lat="40.37597679417847" lon="9.690845878112148"><ele>17.4</ele><time>2026-04-30T07:07:57.839Z</time></trkpt><trkpt lat="40.376049725659406" lon="9.69095334766084"><ele>17.0</ele><time>2026-04-30T07:07:58.839Z</time></trkpt><trkpt lat="40.37612600194797" lon="9.691085177345954"><ele>17.0</ele><time>2026-04-30T07:07:59.839Z</time></trkpt><trkpt lat="40.376213214926295" lon="9.691207176934364"><ele>17.0</ele><time>2026-04-30T07:08:00.839Z</time></trkpt><trkpt lat="40.37630754856516" lon="9.691346016009975"><ele>17.0</ele><time>2026-04-30T07:08:01.839Z</time></trkpt><trkpt lat="40.37638675233739" lon="9.691492856215246"><ele>17.0</ele><time>2026-04-30T07:08:02.839Z</time></trkpt><trkpt lat="40.37645539370377" lon="9.691637212881666"><ele>17.0</ele><time>2026-04-30T07:08:03.839Z</time></trkpt><trkpt lat="40.3765067478577" lon="9.69174725001955"><ele>17.0</ele><time>2026-04-30T07:08:04.839Z</time></trkpt><trkpt lat="40.376534004789455" lon="9.691822757651721"><ele>17.0</ele><time>2026-04-30T07:08:05.839Z</time></trkpt><trkpt lat="40.37657910883621" lon="9.691908187236466"><ele>17.0</ele><time>2026-04-30T07:08:06.839Z</time></trkpt><trkpt lat="40.37662014941707" lon="9.692026821389513"><ele>17.0</ele><time>2026-04-30T07:08:07.839Z</time></trkpt><trkpt lat="40.3766560578097" lon="9.692141011522798"><ele>17.0</ele><time>2026-04-30T07:08:08.839Z</time></trkpt><trkpt lat="40.37669680978105" lon="9.692267654276717"><ele>16.4</ele><time>2026-04-30T07:08:09.839Z</time></trkpt><trkpt lat="40.376744941777766" lon="9.69239542515909"><ele>15.799999999999999</ele><time>2026-04-30T07:08:10.839Z</time></trkpt><trkpt lat="40.37677161497892" lon="9.692530493217093"><ele>15.2</ele><time>2026-04-30T07:08:11.839Z</time></trkpt><trkpt lat="40.37681248601671" lon="9.692661630343693"><ele>14.6</ele><time>2026-04-30T07:08:12.839Z</time></trkpt><trkpt lat="40.37685841802538" lon="9.692785772928291"><ele>14.0</ele><time>2026-04-30T07:08:13.839Z</time></trkpt><trkpt lat="40.37689034214501" lon="9.692931243729856"><ele>13.75</ele><time>2026-04-30T07:08:14.839Z</time></trkpt><trkpt lat="40.376907706730016" lon="9.693066812751107"><ele>13.5</ele><time>2026-04-30T07:08:15.838Z</time></trkpt><trkpt lat="40.376928167111664" lon="9.693213272489224"><ele>13.25</ele><time>2026-04-30T07:08:16.838Z</time></trkpt><trkpt lat="40.376945567778236" lon="9.693374721548714"><ele>13.0</ele><time>2026-04-30T07:08:17.838Z</time></trkpt><trkpt lat="40.3769343605388" lon="9.693529637696509"><ele>13.0</ele><time>2026-04-30T07:08:18.838Z</time></trkpt><trkpt lat="40.37690883955767" lon="9.693683018184927"><ele>13.0</ele><time>2026-04-30T07:08:19.838Z</time></trkpt><trkpt lat="40.3768876087863" lon="9.693835563991126"><ele>13.0</ele><time>2026-04-30T07:08:20.838Z</time></trkpt><trkpt lat="40.376861838959464" lon="9.693991146180014"><ele>13.0</ele><time>2026-04-30T07:08:21.838Z</time></trkpt><trkpt lat="40.37682554859692" lon="9.69413050526086"><ele>13.0</ele><time>2026-04-30T07:08:22.838Z</time></trkpt><trkpt lat="40.376815664286624" lon="9.694275824486853"><ele>13.0</ele><time>2026-04-30T07:08:23.838Z</time></trkpt><trkpt lat="40.376673287992176" lon="9.694662930894392"><ele>13.0</ele><time>2026-04-30T07:08:24.838Z</time></trkpt><trkpt lat="40.37653387087448" lon="9.694749830433597"><ele>12.0</ele><time>2026-04-30T07:08:26.837Z</time></trkpt><trkpt lat="40.376408425043124" lon="9.694821424289891"><ele>11.0</ele><time>2026-04-30T07:08:27.838Z</time></trkpt><trkpt lat="40.37629406083819" lon="9.694886693635178"><ele>10.0</ele><time>2026-04-30T07:08:28.838Z</time></trkpt><trkpt lat="40.37611268789407" lon="9.694784243895363"><ele>9.0</ele><time>2026-04-30T07:08:29.838Z</time></trkpt><trkpt lat="40.37681160227843" lon="9.695464037373245"><ele>9.0</ele><time>2026-04-30T07:08:30.838Z</time></trkpt><trkpt lat="40.37680079742085" lon="9.695618984648657"><ele>9.0</ele><time>2026-04-30T07:08:31.838Z</time></trkpt><trkpt lat="40.37678968202962" lon="9.69577894110174"><ele>9.0</ele><time>2026-04-30T07:08:32.837Z</time></trkpt><trkpt lat="40.37678106117531" lon="9.69592619133678"><ele>9.0</ele><time>2026-04-30T07:08:33.837Z</time></trkpt><trkpt lat="40.37677037554626" lon="9.69607184616873"><ele>8.6</ele><time>2026-04-30T07:08:34.837Z</time></trkpt><trkpt lat="40.37676798819441" lon="9.696229689303548"><ele>8.2</ele><time>2026-04-30T07:08:35.837Z</time></trkpt><trkpt lat="40.37677208471804" lon="9.696384699840106"><ele>7.799999999999999</ele><time>2026-04-30T07:08:36.837Z</time></trkpt><trkpt lat="40.37678055098608" lon="9.69651828448996"><ele>7.3999999999999995</ele><time>2026-04-30T07:08:37.837Z</time></trkpt><trkpt lat="40.37681388425415" lon="9.69663651493873"><ele>7.0</ele><time>2026-04-30T07:08:38.837Z</time></trkpt><trkpt lat="40.376848317576886" lon="9.696725117587535"><ele>7.0</ele><time>2026-04-30T07:08:39.837Z</time></trkpt><trkpt lat="40.37689385497696" lon="9.696796198822737"><ele>7.0</ele><time>2026-04-30T07:08:40.837Z</time></trkpt><trkpt lat="40.37694727119057" lon="9.696846432028645"><ele>7.0</ele><time>2026-04-30T07:08:41.837Z</time></trkpt><trkpt lat="40.3770135792852" lon="9.696880607785504"><ele>7.0</ele><time>2026-04-30T07:08:42.837Z</time></trkpt><trkpt lat="40.37708664247958" lon="9.696907570781931"><ele>7.0</ele><time>2026-04-30T07:08:43.837Z</time></trkpt><trkpt lat="40.3771677146261" lon="9.69693212208851"><ele>7.0</ele><time>2026-04-30T07:08:44.837Z</time></trkpt><trkpt lat="40.37724582494175" lon="9.696951917911935"><ele>7.0</ele><time>2026-04-30T07:08:45.837Z</time></trkpt><trkpt lat="40.377314903124976" lon="9.696964727207995"><ele>7.000000000000001</ele><time>2026-04-30T07:08:46.837Z</time></trkpt><trkpt lat="40.37738338034666" lon="9.69697522457116"><ele>7.0</ele><time>2026-04-30T07:08:47.837Z</time></trkpt><trkpt lat="40.37750571192154" lon="9.697003340215296"><ele>7.0</ele><time>2026-04-30T07:08:49.837Z</time></trkpt><trkpt lat="40.37757125753125" lon="9.697013913249403"><ele>7.0</ele><time>2026-04-30T07:08:50.837Z</time></trkpt><trkpt lat="40.37769130119569" lon="9.697020302392323"><ele>7.000000000000001</ele><time>2026-04-30T07:08:52.837Z</time></trkpt><trkpt lat="40.37776007862489" lon="9.697014111549409"><ele>7.0</ele><time>2026-04-30T07:08:53.837Z</time></trkpt><trkpt lat="40.37788878275757" lon="9.697042207578285"><ele>7.000000000000001</ele><time>2026-04-30T07:08:55.837Z</time></trkpt><trkpt lat="40.37796689940915" lon="9.69705641903049"><ele>7.0</ele><time>2026-04-30T07:08:56.837Z</time></trkpt><trkpt lat="40.37804190365196" lon="9.697072242463149"><ele>7.0</ele><time>2026-04-30T07:08:57.837Z</time></trkpt><trkpt lat="40.37812185740975" lon="9.6970772914363"><ele>7.0</ele><time>2026-04-30T07:08:58.837Z</time></trkpt><trkpt lat="40.37820964425938" lon="9.697087379093626"><ele>7.000000000000001</ele><time>2026-04-30T07:08:59.837Z</time></trkpt><trkpt lat="40.378286552131925" lon="9.697100445419114"><ele>7.0</ele><time>2026-04-30T07:09:00.837Z</time></trkpt><trkpt lat="40.37835358928546" lon="9.69711032509263"><ele>6.8</ele><time>2026-04-30T07:09:01.837Z</time></trkpt><trkpt lat="40.37845859997121" lon="9.697129961570543"><ele>6.6</ele><time>2026-04-30T07:09:03.837Z</time></trkpt><trkpt lat="40.37854946172842" lon="9.697168495150429"><ele>6.3999999999999995</ele><time>2026-04-30T07:09:05.836Z</time></trkpt><trkpt lat="40.37861265888904" lon="9.697263453591406"><ele>6.199999999999999</ele><time>2026-04-30T07:09:07.836Z</time></trkpt><trkpt lat="40.3786406727563" lon="9.69741295255999"><ele>6.0</ele><time>2026-04-30T07:09:09.836Z</time></trkpt><trkpt lat="40.378639381200585" lon="9.697495837465093"><ele>6.0</ele><time>2026-04-30T07:09:10.836Z</time></trkpt><trkpt lat="40.378635607472454" lon="9.697592312674425"><ele>6.0</ele><time>2026-04-30T07:09:11.836Z</time></trkpt><trkpt lat="40.37864193620912" lon="9.697682201926744"><ele>6.0</ele><time>2026-04-30T07:09:12.836Z</time></trkpt><trkpt lat="40.378632747313944" lon="9.697769919638898"><ele>6.0</ele><time>2026-04-30T07:09:13.836Z</time></trkpt><trkpt lat="40.37863790346044" lon="9.697934824719738"><ele>6.0</ele><time>2026-04-30T07:09:15.836Z</time></trkpt><trkpt lat="40.37867506503138" lon="9.698083846074754"><ele>5.8</ele><time>2026-04-30T07:09:17.836Z</time></trkpt><trkpt lat="40.37875723788686" lon="9.698208235974906"><ele>5.6</ele><time>2026-04-30T07:09:19.836Z</time></trkpt><trkpt lat="40.37881110094066" lon="9.698278393094167"><ele>5.4</ele><time>2026-04-30T07:09:20.836Z</time></trkpt><trkpt lat="40.37887948341008" lon="9.698364106225492"><ele>5.2</ele><time>2026-04-30T07:09:21.836Z</time></trkpt><trkpt lat="40.37897139081294" lon="9.698437422415518"><ele>5.0</ele><time>2026-04-30T07:09:22.836Z</time></trkpt><trkpt lat="40.37903770923679" lon="9.698533632810001"><ele>5.5</ele><time>2026-04-30T07:09:23.836Z</time></trkpt><trkpt lat="40.37911580608589" lon="9.69862324480494"><ele>6.0</ele><time>2026-04-30T07:09:24.836Z</time></trkpt><trkpt lat="40.37919281431521" lon="9.698729265761129"><ele>6.5</ele><time>2026-04-30T07:09:25.836Z</time></trkpt><trkpt lat="40.3792809589248" lon="9.698840224940461"><ele>7.0</ele><time>2026-04-30T07:09:26.836Z</time></trkpt><trkpt lat="40.37936866136097" lon="9.698947542198987"><ele>7.0</ele><time>2026-04-30T07:09:27.836Z</time></trkpt><trkpt lat="40.3794521860474" lon="9.699051906554974"><ele>7.0</ele><time>2026-04-30T07:09:28.836Z</time></trkpt><trkpt lat="40.379536961507874" lon="9.699163831933312"><ele>7.0</ele><time>2026-04-30T07:09:29.836Z</time></trkpt><trkpt lat="40.37962153530051" lon="9.699274970979241"><ele>7.0</ele><time>2026-04-30T07:09:30.836Z</time></trkpt><trkpt lat="40.37970725134094" lon="9.699377340787548"><ele>7.0</ele><time>2026-04-30T07:09:31.836Z</time></trkpt><trkpt lat="40.379810731363065" lon="9.699474904414377"><ele>7.0</ele><time>2026-04-30T07:09:32.836Z</time></trkpt><trkpt lat="40.379906972862265" lon="9.699585784048116"><ele>7.0</ele><time>2026-04-30T07:09:33.836Z</time></trkpt><trkpt lat="40.37998517035709" lon="9.699717738515947"><ele>7.0</ele><time>2026-04-30T07:09:34.836Z</time></trkpt><trkpt lat="40.380070015575484" lon="9.699816936540854"><ele>7.0</ele><time>2026-04-30T07:09:35.836Z</time></trkpt><trkpt lat="40.38018230612238" lon="9.699918962705972"><ele>7.0</ele><time>2026-04-30T07:09:36.836Z</time></trkpt><trkpt lat="40.380294954604274" lon="9.700008581344386"><ele>7.0</ele><time>2026-04-30T07:09:37.836Z</time></trkpt><trkpt lat="40.38040861865187" lon="9.700100157747466"><ele>7.0</ele><time>2026-04-30T07:09:38.835Z</time></trkpt><trkpt lat="40.380528954039576" lon="9.700183914707678"><ele>6.0</ele><time>2026-04-30T07:09:39.835Z</time></trkpt><trkpt lat="40.38064396082267" lon="9.700269307098988"><ele>5.0</ele><time>2026-04-30T07:09:40.835Z</time></trkpt><trkpt lat="40.38075616585796" lon="9.700354160292958"><ele>4.0</ele><time>2026-04-30T07:09:41.835Z</time></trkpt><trkpt lat="40.38087090362147" lon="9.700430117965084"><ele>3.0</ele><time>2026-04-30T07:09:42.835Z</time></trkpt><trkpt lat="40.38098257554811" lon="9.700518066171067"><ele>3.0</ele><time>2026-04-30T07:09:43.835Z</time></trkpt><trkpt lat="40.3811003938325" lon="9.700601463265016"><ele>3.0</ele><time>2026-04-30T07:09:44.835Z</time></trkpt><trkpt lat="40.38121403546328" lon="9.70068669897225"><ele>3.0</ele><time>2026-04-30T07:09:45.835Z</time></trkpt><trkpt lat="40.38133240165977" lon="9.700775036883224"><ele>3.0</ele><time>2026-04-30T07:09:46.835Z</time></trkpt><trkpt lat="40.38145534593942" lon="9.700864044753631"><ele>3.0</ele><time>2026-04-30T07:09:47.835Z</time></trkpt><trkpt lat="40.38158208818605" lon="9.700956045119296"><ele>3.0</ele><time>2026-04-30T07:09:48.835Z</time></trkpt><trkpt lat="40.3817112480121" lon="9.701053211853955"><ele>3.0</ele><time>2026-04-30T07:09:49.835Z</time></trkpt><trkpt lat="40.38183974019177" lon="9.701144052208612"><ele>3.0</ele><time>2026-04-30T07:09:50.835Z</time></trkpt><trkpt lat="40.381968282223376" lon="9.70124118289166"><ele>3.0</ele><time>2026-04-30T07:09:51.835Z</time></trkpt><trkpt lat="40.382087250613885" lon="9.701339298385031"><ele>3.0</ele><time>2026-04-30T07:09:52.835Z</time></trkpt><trkpt lat="40.38221227750798" lon="9.701431491246348"><ele>3.0</ele><time>2026-04-30T07:09:53.835Z</time></trkpt><trkpt lat="40.38232875079395" lon="9.7015189783296"><ele>3.0</ele><time>2026-04-30T07:09:54.835Z</time></trkpt><trkpt lat="40.3824410708665" lon="9.701600973294038"><ele>3.3333333333333335</ele><time>2026-04-30T07:09:55.835Z</time></trkpt><trkpt lat="40.382545608687565" lon="9.701674990822328"><ele>3.666666666666667</ele><time>2026-04-30T07:09:56.835Z</time></trkpt><trkpt lat="40.38263096722017" lon="9.701738996690608"><ele>4.0</ele><time>2026-04-30T07:09:57.835Z</time></trkpt><trkpt lat="40.3826926162129" lon="9.70179071791223"><ele>4.333333333333334</ele><time>2026-04-30T07:09:58.835Z</time></trkpt><trkpt lat="40.38275626469176" lon="9.701864925487977"><ele>4.666666666666667</ele><time>2026-04-30T07:10:00.835Z</time></trkpt><trkpt lat="40.382688125697506" lon="9.701883794411964"><ele>5.0</ele><time>2026-04-30T07:10:04.835Z</time></trkpt><trkpt lat="40.38258867589356" lon="9.701792519550308"><ele>5.0</ele><time>2026-04-30T07:10:07.835Z</time></trkpt><trkpt lat="40.38250546370032" lon="9.701761262185189"><ele>5.0</ele><time>2026-04-30T07:10:09.835Z</time></trkpt><trkpt lat="40.38239269184691" lon="9.701862709170566"><ele>5.0</ele><time>2026-04-30T07:10:25.833Z</time></trkpt><trkpt lat="40.38234759866172" lon="9.701941100545561"><ele>5.0</ele><time>2026-04-30T07:10:26.833Z</time></trkpt><trkpt lat="40.38230384179155" lon="9.70203631627969"><ele>5.0</ele><time>2026-04-30T07:10:27.832Z</time></trkpt><trkpt lat="40.38225868890136" lon="9.702129185541127"><ele>5.0</ele><time>2026-04-30T07:10:28.832Z</time></trkpt><trkpt lat="40.382202076417" lon="9.702230826797608"><ele>5.0</ele><time>2026-04-30T07:10:29.832Z</time></trkpt><trkpt lat="40.38213930861069" lon="9.702341492302718"><ele>5.0</ele><time>2026-04-30T07:10:30.832Z</time></trkpt><trkpt lat="40.38207440371099" lon="9.702453809036092"><ele>5.0</ele><time>2026-04-30T07:10:31.832Z</time></trkpt><trkpt lat="40.38201005617035" lon="9.702567872172114"><ele>5.0</ele><time>2026-04-30T07:10:32.832Z</time></trkpt><trkpt lat="40.381967821773856" lon="9.70268007807401"><ele>4.8</ele><time>2026-04-30T07:10:33.832Z</time></trkpt><trkpt lat="40.38190715435916" lon="9.702758915979382"><ele>4.6</ele><time>2026-04-30T07:10:34.832Z</time></trkpt><trkpt lat="40.38185396913927" lon="9.702852505544337"><ele>4.4</ele><time>2026-04-30T07:10:35.832Z</time></trkpt><trkpt lat="40.38180226988906" lon="9.702949006339733"><ele>4.2</ele><time>2026-04-30T07:10:36.832Z</time></trkpt><trkpt lat="40.381758084285956" lon="9.703046702242535"><ele>4.0</ele><time>2026-04-30T07:10:37.832Z</time></trkpt><trkpt lat="40.38169555788229" lon="9.70315833351699"><ele>4.0</ele><time>2026-04-30T07:10:38.832Z</time></trkpt><trkpt lat="40.38163328379891" lon="9.703282418264868"><ele>4.0</ele><time>2026-04-30T07:10:39.832Z</time></trkpt><trkpt lat="40.38157241848925" lon="9.703395804668247"><ele>4.0</ele><time>2026-04-30T07:10:40.832Z</time></trkpt><trkpt lat="40.38149663894297" lon="9.703502909265815"><ele>4.0</ele><time>2026-04-30T07:10:41.832Z</time></trkpt><trkpt lat="40.381433712567166" lon="9.70361459399786"><ele>4.0</ele><time>2026-04-30T07:10:42.832Z</time></trkpt><trkpt lat="40.38136130090924" lon="9.703750470905483"><ele>3.5</ele><time>2026-04-30T07:10:43.832Z</time></trkpt><trkpt lat="40.38129975133795" lon="9.7038839125351"><ele>3.0</ele><time>2026-04-30T07:10:44.832Z</time></trkpt><trkpt lat="40.38122837116883" lon="9.704014837874903"><ele>2.5</ele><time>2026-04-30T07:10:45.832Z</time></trkpt><trkpt lat="40.38115471804207" lon="9.704146450758202"><ele>2.0</ele><time>2026-04-30T07:10:46.832Z</time></trkpt><trkpt lat="40.381082683962035" lon="9.704279609339489"><ele>2.0</ele><time>2026-04-30T07:10:47.832Z</time></trkpt><trkpt lat="40.38101260049638" lon="9.704413853506558"><ele>2.0</ele><time>2026-04-30T07:10:48.832Z</time></trkpt><trkpt lat="40.38094358895359" lon="9.704538696133584"><ele>2.0</ele><time>2026-04-30T07:10:49.832Z</time></trkpt><trkpt lat="40.380879972184005" lon="9.704674735936273"><ele>2.0</ele><time>2026-04-30T07:10:50.832Z</time></trkpt><trkpt lat="40.38080155676402" lon="9.704794192149818"><ele>2.0</ele><time>2026-04-30T07:10:51.831Z</time></trkpt><trkpt lat="40.38074121040845" lon="9.704929214268166"><ele>2.0</ele><time>2026-04-30T07:10:52.831Z</time></trkpt><trkpt lat="40.38068638410447" lon="9.705072603825782"><ele>2.0</ele><time>2026-04-30T07:10:53.831Z</time></trkpt><trkpt lat="40.38061575624486" lon="9.705212900245499"><ele>2.0</ele><time>2026-04-30T07:10:54.831Z</time></trkpt><trkpt lat="40.38055994551307" lon="9.705359532695491"><ele>1.5</ele><time>2026-04-30T07:10:55.831Z</time></trkpt><trkpt lat="40.38050361845793" lon="9.70550696775578"><ele>1.0</ele><time>2026-04-30T07:10:56.831Z</time></trkpt><trkpt lat="40.38043893429516" lon="9.70565464374933"><ele>0.5</ele><time>2026-04-30T07:10:57.831Z</time></trkpt><trkpt lat="40.380388997702354" lon="9.705807934562161"><ele>0.0</ele><time>2026-04-30T07:10:58.831Z</time></trkpt><trkpt lat="40.38033876383386" lon="9.705962807260352"><ele>0.2</ele><time>2026-04-30T07:10:59.831Z</time></trkpt><trkpt lat="40.38029651580625" lon="9.706123468351974"><ele>0.4</ele><time>2026-04-30T07:11:00.831Z</time></trkpt><trkpt lat="40.380252896651626" lon="9.706277848033594"><ele>0.6000000000000001</ele><time>2026-04-30T07:11:01.831Z</time></trkpt><trkpt lat="40.380230082325575" lon="9.706406041287263"><ele>0.8</ele><time>2026-04-30T07:11:02.831Z</time></trkpt><trkpt lat="40.38020137536185" lon="9.706516870631791"><ele>1.0</ele><time>2026-04-30T07:11:03.831Z</time></trkpt><trkpt lat="40.38016898493589" lon="9.706616490530596"><ele>1.0</ele><time>2026-04-30T07:11:04.831Z</time></trkpt><trkpt lat="40.380141439634635" lon="9.706730014795005"><ele>1.0</ele><time>2026-04-30T07:11:06.831Z</time></trkpt><trkpt lat="40.38011899740467" lon="9.706820614568706"><ele>1.0</ele><time>2026-04-30T07:11:22.831Z</time></trkpt><trkpt lat="40.38009602855234" lon="9.70694679421217"><ele>1.0</ele><time>2026-04-30T07:11:25.83Z</time></trkpt><trkpt lat="40.38007318909101" lon="9.707030992050937"><ele>1.0</ele><time>2026-04-30T07:11:26.83Z</time></trkpt><trkpt lat="40.380039110446205" lon="9.707186357945332"><ele>1.0</ele><time>2026-04-30T07:11:28.83Z</time></trkpt><trkpt lat="40.380017031521575" lon="9.707319185839046"><ele>1.0</ele><time>2026-04-30T07:11:29.83Z</time></trkpt><trkpt lat="40.37999354379068" lon="9.707463325250018"><ele>1.0</ele><time>2026-04-30T07:11:30.83Z</time></trkpt><trkpt lat="40.379964281745465" lon="9.707640926149326"><ele>1.0</ele><time>2026-04-30T07:11:31.83Z</time></trkpt><trkpt lat="40.379935659773174" lon="9.707826787081578"><ele>1.3333333333333333</ele><time>2026-04-30T07:11:32.83Z</time></trkpt><trkpt lat="40.37991439304911" lon="9.708024977552208"><ele>1.6666666666666665</ele><time>2026-04-30T07:11:33.83Z</time></trkpt><trkpt lat="40.3798935874721" lon="9.708213999931317"><ele>2.0</ele><time>2026-04-30T07:11:34.83Z</time></trkpt><trkpt lat="40.37987045084489" lon="9.708411587564347"><ele>1.6666666666666665</ele><time>2026-04-30T07:11:35.83Z</time></trkpt><trkpt lat="40.379848317504226" lon="9.708610435602896"><ele>1.3333333333333333</ele><time>2026-04-30T07:11:36.83Z</time></trkpt><trkpt lat="40.37982575329379" lon="9.70880494645907"><ele>1.0</ele><time>2026-04-30T07:11:37.83Z</time></trkpt><trkpt lat="40.37980230422753" lon="9.709001686556041"><ele>1.0</ele><time>2026-04-30T07:11:38.83Z</time></trkpt><trkpt lat="40.3797756253604" lon="9.709194090811202"><ele>1.0</ele><time>2026-04-30T07:11:39.83Z</time></trkpt><trkpt lat="40.379753761794326" lon="9.709379420154123"><ele>1.0</ele><time>2026-04-30T07:11:40.83Z</time></trkpt><trkpt lat="40.3797321000478" lon="9.709555177761382"><ele>1.0</ele><time>2026-04-30T07:11:41.83Z</time></trkpt><trkpt lat="40.37971336832932" lon="9.709727706324331"><ele>1.0</ele><time>2026-04-30T07:11:42.83Z</time></trkpt><trkpt lat="40.37969628695459" lon="9.709899585549689"><ele>1.0</ele><time>2026-04-30T07:11:43.83Z</time></trkpt><trkpt lat="40.3796795579493" lon="9.710073440057037"><ele>1.0</ele><time>2026-04-30T07:11:44.83Z</time></trkpt><trkpt lat="40.37966189901033" lon="9.710250451325148"><ele>1.0</ele><time>2026-04-30T07:11:45.83Z</time></trkpt><trkpt lat="40.37964411957461" lon="9.710426052622486"><ele>0.75</ele><time>2026-04-30T07:11:46.83Z</time></trkpt><trkpt lat="40.37963045729261" lon="9.71060646501886"><ele>0.5</ele><time>2026-04-30T07:11:47.83Z</time></trkpt><trkpt lat="40.379616922467434" lon="9.7107850953937"><ele>0.25</ele><time>2026-04-30T07:11:48.83Z</time></trkpt><trkpt lat="40.37960561578757" lon="9.71096345728809"><ele>0.0</ele><time>2026-04-30T07:11:49.83Z</time></trkpt><trkpt lat="40.37958277220485" lon="9.711136344191543"><ele>-0.25</ele><time>2026-04-30T07:11:50.83Z</time></trkpt><trkpt lat="40.379576099837955" lon="9.711324428058461"><ele>-0.5</ele><time>2026-04-30T07:11:51.83Z</time></trkpt><trkpt lat="40.37957149038185" lon="9.711515742940765"><ele>-0.75</ele><time>2026-04-30T07:11:52.83Z</time></trkpt><trkpt lat="40.379568014582944" lon="9.711703270890915"><ele>-1.0</ele><time>2026-04-30T07:11:53.83Z</time></trkpt><trkpt lat="40.37956761555748" lon="9.711896191877122"><ele>-0.5</ele><time>2026-04-30T07:11:54.83Z</time></trkpt><trkpt lat="40.37956747720138" lon="9.71208501481927"><ele>0.0</ele><time>2026-04-30T07:11:55.83Z</time></trkpt><trkpt lat="40.37956571225461" lon="9.712265041648878"><ele>0.5</ele><time>2026-04-30T07:11:56.83Z</time></trkpt><trkpt lat="40.37956272743961" lon="9.712438731855519"><ele>1.0</ele><time>2026-04-30T07:11:57.829Z</time></trkpt><trkpt lat="40.37956108501982" lon="9.712615904830075"><ele>1.0</ele><time>2026-04-30T07:11:58.829Z</time></trkpt><trkpt lat="40.37955949099685" lon="9.712792594881876"><ele>1.0</ele><time>2026-04-30T07:11:59.829Z</time></trkpt><trkpt lat="40.37955892853754" lon="9.712975947852419"><ele>1.0</ele><time>2026-04-30T07:12:00.829Z</time></trkpt><trkpt lat="40.37956076184646" lon="9.713161102935983"><ele>1.0</ele><time>2026-04-30T07:12:01.829Z</time></trkpt><trkpt lat="40.379555532877404" lon="9.713357306649787"><ele>1.0</ele><time>2026-04-30T07:12:02.829Z</time></trkpt><trkpt lat="40.37955265785979" lon="9.713549286884314"><ele>1.0</ele><time>2026-04-30T07:12:03.829Z</time></trkpt><trkpt lat="40.37955122979837" lon="9.71373750092575"><ele>1.0</ele><time>2026-04-30T07:12:04.829Z</time></trkpt><trkpt lat="40.37955159621531" lon="9.713928257451379"><ele>1.0</ele><time>2026-04-30T07:12:05.829Z</time></trkpt><trkpt lat="40.37955252205242" lon="9.714114967024768"><ele>0.75</ele><time>2026-04-30T07:12:06.829Z</time></trkpt><trkpt lat="40.37954918796945" lon="9.714310277970366"><ele>0.5</ele><time>2026-04-30T07:12:07.829Z</time></trkpt><trkpt lat="40.37954511267476" lon="9.714499298369104"><ele>0.25</ele><time>2026-04-30T07:12:08.829Z</time></trkpt><trkpt lat="40.37954071984223" lon="9.714687753688615"><ele>0.0</ele><time>2026-04-30T07:12:09.829Z</time></trkpt><trkpt lat="40.379537581000164" lon="9.71487697142575"><ele>0.0</ele><time>2026-04-30T07:12:10.829Z</time></trkpt><trkpt lat="40.379537172961044" lon="9.715078098136836"><ele>0.0</ele><time>2026-04-30T07:12:11.829Z</time></trkpt><trkpt lat="40.37953161337559" lon="9.715277615451344"><ele>0.0</ele><time>2026-04-30T07:12:12.829Z</time></trkpt><trkpt lat="40.379524664072626" lon="9.71547679801942"><ele>0.3333333333333333</ele><time>2026-04-30T07:12:13.829Z</time></trkpt><trkpt lat="40.3795182398985" lon="9.71567913158253"><ele>0.6666666666666666</ele><time>2026-04-30T07:12:14.829Z</time></trkpt><trkpt lat="40.379508586304425" lon="9.71588414482404"><ele>1.0</ele><time>2026-04-30T07:12:15.829Z</time></trkpt><trkpt lat="40.379497924785916" lon="9.71608313579349"><ele>1.3333333333333333</ele><time>2026-04-30T07:12:16.829Z</time></trkpt><trkpt lat="40.37948208228293" lon="9.716288073217296"><ele>1.6666666666666665</ele><time>2026-04-30T07:12:17.829Z</time></trkpt><trkpt lat="40.3794670993876" lon="9.716494892381812"><ele>2.0</ele><time>2026-04-30T07:12:18.829Z</time></trkpt><trkpt lat="40.379452042002825" lon="9.716695839352939"><ele>2.0</ele><time>2026-04-30T07:12:19.829Z</time></trkpt><trkpt lat="40.379432900391045" lon="9.716901720505474"><ele>2.0</ele><time>2026-04-30T07:12:20.829Z</time></trkpt><trkpt lat="40.37941468487503" lon="9.71710118503057"><ele>2.0</ele><time>2026-04-30T07:12:21.829Z</time></trkpt><trkpt lat="40.37939577997065" lon="9.717300813565082"><ele>2.0</ele><time>2026-04-30T07:12:22.829Z</time></trkpt><trkpt lat="40.379375432588176" lon="9.717502241166974"><ele>2.0</ele><time>2026-04-30T07:12:23.829Z</time></trkpt><trkpt lat="40.37935487692246" lon="9.717703188208638"><ele>2.0</ele><time>2026-04-30T07:12:24.829Z</time></trkpt><trkpt lat="40.379313669604315" lon="9.717906076437766"><ele>2.0</ele><time>2026-04-30T07:12:25.829Z</time></trkpt><trkpt lat="40.37928616235951" lon="9.718103797794196"><ele>2.0</ele><time>2026-04-30T07:12:26.829Z</time></trkpt><trkpt lat="40.379255072866755" lon="9.718305746728161"><ele>2.0</ele><time>2026-04-30T07:12:27.827Z</time></trkpt><trkpt lat="40.37922331001279" lon="9.718509612225406"><ele>1.6666666666666665</ele><time>2026-04-30T07:12:28.827Z</time></trkpt><trkpt lat="40.379190636049934" lon="9.71871312060876"><ele>1.3333333333333333</ele><time>2026-04-30T07:12:29.827Z</time></trkpt><trkpt lat="40.379175371408216" lon="9.718924578410517"><ele>1.0</ele><time>2026-04-30T07:12:30.828Z</time></trkpt><trkpt lat="40.37914545158527" lon="9.719128650138975"><ele>1.0</ele><time>2026-04-30T07:12:31.827Z</time></trkpt><trkpt lat="40.37911288002977" lon="9.719333795883973"><ele>1.0</ele><time>2026-04-30T07:12:32.827Z</time></trkpt><trkpt lat="40.37907850156581" lon="9.7195420049724"><ele>1.0</ele><time>2026-04-30T07:12:33.827Z</time></trkpt><trkpt lat="40.37904840676653" lon="9.719744464578275"><ele>1.0</ele><time>2026-04-30T07:12:34.827Z</time></trkpt><trkpt lat="40.37901734741704" lon="9.719952516744566"><ele>1.0</ele><time>2026-04-30T07:12:35.827Z</time></trkpt><trkpt lat="40.378986293954114" lon="9.72016016010092"><ele>1.0</ele><time>2026-04-30T07:12:36.828Z</time></trkpt><trkpt lat="40.37895567146795" lon="9.720370037804797"><ele>1.0</ele><time>2026-04-30T07:12:37.827Z</time></trkpt><trkpt lat="40.37890631727479" lon="9.720573214403522"><ele>1.0</ele><time>2026-04-30T07:12:38.827Z</time></trkpt><trkpt lat="40.37889144374755" lon="9.720783898022027"><ele>1.0</ele><time>2026-04-30T07:12:39.827Z</time></trkpt><trkpt lat="40.37885723639085" lon="9.72099920779761"><ele>0.6666666666666666</ele><time>2026-04-30T07:12:40.827Z</time></trkpt><trkpt lat="40.37882624625481" lon="9.721209174919169"><ele>0.3333333333333333</ele><time>2026-04-30T07:12:41.827Z</time></trkpt><trkpt lat="40.378793942789805" lon="9.721421878964904"><ele>0.0</ele><time>2026-04-30T07:12:42.827Z</time></trkpt><trkpt lat="40.37876275957247" lon="9.721632950891461"><ele>0.0</ele><time>2026-04-30T07:12:43.827Z</time></trkpt><trkpt lat="40.378732988255514" lon="9.721843422236338"><ele>0.0</ele><time>2026-04-30T07:12:44.827Z</time></trkpt><trkpt lat="40.378697972121785" lon="9.72205657532789"><ele>0.0</ele><time>2026-04-30T07:12:45.827Z</time></trkpt><trkpt lat="40.37866277675998" lon="9.722266769759806"><ele>0.3333333333333333</ele><time>2026-04-30T07:12:46.827Z</time></trkpt><trkpt lat="40.3786304554457" lon="9.722476939284642"><ele>0.6666666666666666</ele><time>2026-04-30T07:12:47.827Z</time></trkpt><trkpt lat="40.37860033500635" lon="9.722680550121773"><ele>1.0</ele><time>2026-04-30T07:12:48.827Z</time></trkpt><trkpt lat="40.37857096040968" lon="9.7228839198486"><ele>1.0</ele><time>2026-04-30T07:12:49.827Z</time></trkpt><trkpt lat="40.378538950375024" lon="9.723091851884146"><ele>1.0</ele><time>2026-04-30T07:12:50.827Z</time></trkpt><trkpt lat="40.37850887961474" lon="9.723293117693911"><ele>1.0</ele><time>2026-04-30T07:12:51.827Z</time></trkpt><trkpt lat="40.37847554004343" lon="9.723502216628464"><ele>1.0</ele><time>2026-04-30T07:12:52.827Z</time></trkpt><trkpt lat="40.37844731309602" lon="9.723707706431428"><ele>1.0</ele><time>2026-04-30T07:12:53.827Z</time></trkpt><trkpt lat="40.37841692544356" lon="9.72391071973893"><ele>1.0</ele><time>2026-04-30T07:12:54.827Z</time></trkpt><trkpt lat="40.378370551026734" lon="9.724112146165245"><ele>1.0</ele><time>2026-04-30T07:12:55.827Z</time></trkpt><trkpt lat="40.37834074547382" lon="9.724308525781009"><ele>1.0</ele><time>2026-04-30T07:12:56.827Z</time></trkpt><trkpt lat="40.37833067769027" lon="9.72450392029432"><ele>1.0</ele><time>2026-04-30T07:12:57.827Z</time></trkpt><trkpt lat="40.37830286494693" lon="9.724692135656642"><ele>1.0</ele><time>2026-04-30T07:12:58.827Z</time></trkpt><trkpt lat="40.37825625339999" lon="9.724857361970454"><ele>1.3333333333333333</ele><time>2026-04-30T07:12:59.827Z</time></trkpt><trkpt lat="40.37825328393321" lon="9.724997866976356"><ele>1.6666666666666665</ele><time>2026-04-30T07:13:00.827Z</time></trkpt><trkpt lat="40.378229418197954" lon="9.725102922434088"><ele>2.0</ele><time>2026-04-30T07:13:01.826Z</time></trkpt><trkpt lat="40.37819836614398" lon="9.725190809646197"><ele>2.3333333333333335</ele><time>2026-04-30T07:13:02.826Z</time></trkpt><trkpt lat="40.37812770677246" lon="9.725223415463308"><ele>2.6666666666666665</ele><time>2026-04-30T07:13:03.826Z</time></trkpt><trkpt lat="40.37806734872717" lon="9.725269224871537"><ele>3.0</ele><time>2026-04-30T07:13:04.826Z</time></trkpt><trkpt lat="40.378023524949" lon="9.725329948406525"><ele>3.2</ele><time>2026-04-30T07:13:05.826Z</time></trkpt><trkpt lat="40.37800912098379" lon="9.725473409000207"><ele>3.4</ele><time>2026-04-30T07:13:07.826Z</time></trkpt><trkpt lat="40.378051261894825" lon="9.72559349976589"><ele>3.6000000000000005</ele><time>2026-04-30T07:13:09.826Z</time></trkpt><trkpt lat="40.378138816386" lon="9.725680896536348"><ele>3.8000000000000003</ele><time>2026-04-30T07:13:11.826Z</time></trkpt><trkpt lat="40.37819823720797" lon="9.72573192779603"><ele>4.0</ele><time>2026-04-30T07:13:12.826Z</time></trkpt><trkpt lat="40.37823593937841" lon="9.725806229448377"><ele>3.9999999999999996</ele><time>2026-04-30T07:13:14.826Z</time></trkpt><trkpt lat="40.37817492797796" lon="9.725943181556094"><ele>4.0</ele><time>2026-04-30T07:13:16.826Z</time></trkpt><trkpt lat="40.37817626809215" lon="9.726042493252216"><ele>4.0</ele><time>2026-04-30T07:13:17.826Z</time></trkpt><trkpt lat="40.378167360743845" lon="9.726148302537457"><ele>4.0</ele><time>2026-04-30T07:13:18.826Z</time></trkpt><trkpt lat="40.3781774483844" lon="9.726264491007054"><ele>3.9999999999999996</ele><time>2026-04-30T07:13:19.826Z</time></trkpt><trkpt lat="40.37819240246725" lon="9.726362048541612"><ele>4.0</ele><time>2026-04-30T07:13:20.826Z</time></trkpt><trkpt lat="40.37825254012112" lon="9.726489953737703"><ele>3.9999999999999996</ele><time>2026-04-30T07:13:22.826Z</time></trkpt><trkpt lat="40.37830606325668" lon="9.72656552778886"><ele>4.0</ele><time>2026-04-30T07:13:23.826Z</time></trkpt><trkpt lat="40.37835573626453" lon="9.726645626910008"><ele>4.0</ele><time>2026-04-30T07:13:24.826Z</time></trkpt><trkpt lat="40.378387106922666" lon="9.72675168560259"><ele>4.0</ele><time>2026-04-30T07:13:26.826Z</time></trkpt><trkpt lat="40.37844341114338" lon="9.726638271412375"><ele>3.9999999999999996</ele><time>2026-04-30T07:13:35.825Z</time></trkpt><trkpt lat="40.37849528532552" lon="9.72654231934484"><ele>4.0</ele><time>2026-04-30T07:13:36.825Z</time></trkpt><trkpt lat="40.37855748421276" lon="9.72645365884689"><ele>4.0</ele><time>2026-04-30T07:13:37.825Z</time></trkpt><trkpt lat="40.3786344319846" lon="9.726389232162616"><ele>4.0</ele><time>2026-04-30T07:13:38.825Z</time></trkpt><trkpt lat="40.37871158531862" lon="9.726351408103694"><ele>4.0</ele><time>2026-04-30T07:13:39.825Z</time></trkpt><trkpt lat="40.378803630227516" lon="9.72635352506106"><ele>4.0</ele><time>2026-04-30T07:13:40.825Z</time></trkpt><trkpt lat="40.37889647095841" lon="9.726323950126586"><ele>4.0</ele><time>2026-04-30T07:13:41.825Z</time></trkpt><trkpt lat="40.37899098005423" lon="9.726326888936278"><ele>6.2</ele><time>2026-04-30T07:13:42.825Z</time></trkpt><trkpt lat="40.37909585803827" lon="9.72632992524679"><ele>8.4</ele><time>2026-04-30T07:13:43.825Z</time></trkpt><trkpt lat="40.37919841918322" lon="9.726338633049487"><ele>10.6</ele><time>2026-04-30T07:13:44.825Z</time></trkpt><trkpt lat="40.37930857644409" lon="9.726327796728164"><ele>12.8</ele><time>2026-04-30T07:13:45.825Z</time></trkpt><trkpt lat="40.37941288952507" lon="9.726303442769298"><ele>15.0</ele><time>2026-04-30T07:13:46.825Z</time></trkpt><trkpt lat="40.37951441445347" lon="9.726284121462706"><ele>15.0</ele><time>2026-04-30T07:13:47.825Z</time></trkpt><trkpt lat="40.37961659795934" lon="9.726277934377954"><ele>15.0</ele><time>2026-04-30T07:13:48.825Z</time></trkpt><trkpt lat="40.379706035524585" lon="9.726322116560798"><ele>15.0</ele><time>2026-04-30T07:13:49.825Z</time></trkpt><trkpt lat="40.379791699930074" lon="9.726400110530637"><ele>15.0</ele><time>2026-04-30T07:13:50.825Z</time></trkpt><trkpt lat="40.37989447342057" lon="9.726453755310205"><ele>15.0</ele><time>2026-04-30T07:13:51.825Z</time></trkpt><trkpt lat="40.37998975632039" lon="9.726469919116411"><ele>14.0</ele><time>2026-04-30T07:13:52.825Z</time></trkpt><trkpt lat="40.38009027497654" lon="9.72643533954413"><ele>13.0</ele><time>2026-04-30T07:13:53.825Z</time></trkpt><trkpt lat="40.38017688719847" lon="9.72637451993634"><ele>12.0</ele><time>2026-04-30T07:13:54.825Z</time></trkpt><trkpt lat="40.38028129419962" lon="9.726336352395236"><ele>11.0</ele><time>2026-04-30T07:13:55.825Z</time></trkpt><trkpt lat="40.38038061973902" lon="9.72629153168112"><ele>10.0</ele><time>2026-04-30T07:13:56.825Z</time></trkpt><trkpt lat="40.3804494932929" lon="9.726284696055956"><ele>10.0</ele><time>2026-04-30T07:13:57.825Z</time></trkpt><trkpt lat="40.38042964457655" lon="9.726378579414835"><ele>10.0</ele><time>2026-04-30T07:14:02.825Z</time></trkpt><trkpt lat="40.380379811163834" lon="9.726449012277815"><ele>10.0</ele><time>2026-04-30T07:14:03.825Z</time></trkpt><trkpt lat="40.380328610507405" lon="9.726523071398894"><ele>10.0</ele><time>2026-04-30T07:14:04.825Z</time></trkpt><trkpt lat="40.38025115992467" lon="9.726639185912601"><ele>10.0</ele><time>2026-04-30T07:14:06.825Z</time></trkpt><trkpt lat="40.380192923884756" lon="9.726672607148888"><ele>10.0</ele><time>2026-04-30T07:14:08.824Z</time></trkpt><trkpt lat="40.3800430313882" lon="9.726764738473777"><ele>10.0</ele><time>2026-04-30T07:15:07.821Z</time></trkpt><trkpt lat="40.37991636681748" lon="9.726748790072882"><ele>10.0</ele><time>2026-04-30T07:15:09.821Z</time></trkpt><trkpt lat="40.37983468013274" lon="9.726709398271877"><ele>10.0</ele><time>2026-04-30T07:15:10.821Z</time></trkpt><trkpt lat="40.37974752697908" lon="9.726679582756672"><ele>10.0</ele><time>2026-04-30T07:15:11.821Z</time></trkpt><trkpt lat="40.379666802677356" lon="9.7266299891947"><ele>10.0</ele><time>2026-04-30T07:15:12.821Z</time></trkpt><trkpt lat="40.37958168504726" lon="9.726594051814635"><ele>11.0</ele><time>2026-04-30T07:15:13.821Z</time></trkpt><trkpt lat="40.379491109635715" lon="9.726578175647433"><ele>12.0</ele><time>2026-04-30T07:15:14.821Z</time></trkpt><trkpt lat="40.37940038392323" lon="9.7265798942248"><ele>13.0</ele><time>2026-04-30T07:15:15.821Z</time></trkpt><trkpt lat="40.37930821828626" lon="9.72659820315849"><ele>14.0</ele><time>2026-04-30T07:15:16.821Z</time></trkpt><trkpt lat="40.3792221824668" lon="9.726646649711387"><ele>15.0</ele><time>2026-04-30T07:15:17.821Z</time></trkpt><trkpt lat="40.37915023821859" lon="9.72670488993924"><ele>15.0</ele><time>2026-04-30T07:15:18.821Z</time></trkpt><trkpt lat="40.379088310932744" lon="9.726781222654347"><ele>15.0</ele><time>2026-04-30T07:15:19.821Z</time></trkpt><trkpt lat="40.37903393943041" lon="9.726869369348202"><ele>15.0</ele><time>2026-04-30T07:15:20.821Z</time></trkpt><trkpt lat="40.378994458582916" lon="9.726963120220267"><ele>15.0</ele><time>2026-04-30T07:15:21.821Z</time></trkpt><trkpt lat="40.37897570344152" lon="9.727083315224437"><ele>15.0</ele><time>2026-04-30T07:15:22.821Z</time></trkpt><trkpt lat="40.37897940443138" lon="9.727218239035466"><ele>15.0</ele><time>2026-04-30T07:15:23.821Z</time></trkpt><trkpt lat="40.37899338727118" lon="9.727357465984968"><ele>15.4</ele><time>2026-04-30T07:15:24.821Z</time></trkpt><trkpt lat="40.379023415042305" lon="9.72749248728177"><ele>15.8</ele><time>2026-04-30T07:15:25.821Z</time></trkpt><trkpt lat="40.379067812234396" lon="9.727617704792092"><ele>16.2</ele><time>2026-04-30T07:15:26.821Z</time></trkpt><trkpt lat="40.37911978053565" lon="9.727734581750989"><ele>16.6</ele><time>2026-04-30T07:15:27.821Z</time></trkpt><trkpt lat="40.37918029995383" lon="9.72784452229017"><ele>17.0</ele><time>2026-04-30T07:15:28.821Z</time></trkpt><trkpt lat="40.37925131845875" lon="9.727942379977705"><ele>17.0</ele><time>2026-04-30T07:15:29.821Z</time></trkpt><trkpt lat="40.379334334581046" lon="9.7280244050831"><ele>17.0</ele><time>2026-04-30T07:15:30.821Z</time></trkpt><trkpt lat="40.37943020324452" lon="9.728092593096026"><ele>17.0</ele><time>2026-04-30T07:15:31.821Z</time></trkpt><trkpt lat="40.3795303371029" lon="9.728161354883264"><ele>17.0</ele><time>2026-04-30T07:15:32.821Z</time></trkpt><trkpt lat="40.379630761945506" lon="9.728250149306714"><ele>17.0</ele><time>2026-04-30T07:15:33.821Z</time></trkpt><trkpt lat="40.379736937875876" lon="9.728316332383574"><ele>17.75</ele><time>2026-04-30T07:15:34.821Z</time></trkpt><trkpt lat="40.37984287812104" lon="9.728388418617472"><ele>18.5</ele><time>2026-04-30T07:15:35.821Z</time></trkpt><trkpt lat="40.37994790761892" lon="9.728459286839062"><ele>19.25</ele><time>2026-04-30T07:15:36.82Z</time></trkpt><trkpt lat="40.3800568772071" lon="9.728531696626588"><ele>20.0</ele><time>2026-04-30T07:15:37.82Z</time></trkpt><trkpt lat="40.38016774072082" lon="9.728603192875426"><ele>20.0</ele><time>2026-04-30T07:15:38.82Z</time></trkpt><trkpt lat="40.38028648870313" lon="9.72867891823082"><ele>20.0</ele><time>2026-04-30T07:15:39.82Z</time></trkpt><trkpt lat="40.38041077860064" lon="9.728757844035197"><ele>20.0</ele><time>2026-04-30T07:15:40.82Z</time></trkpt><trkpt lat="40.38053433151913" lon="9.728839964080287"><ele>20.0</ele><time>2026-04-30T07:15:41.82Z</time></trkpt><trkpt lat="40.38065799004506" lon="9.728916723780156"><ele>21.75</ele><time>2026-04-30T07:15:42.82Z</time></trkpt><trkpt lat="40.380782089474124" lon="9.728993015034087"><ele>23.5</ele><time>2026-04-30T07:15:43.82Z</time></trkpt><trkpt lat="40.38090007233866" lon="9.729073208463397"><ele>25.25</ele><time>2026-04-30T07:15:44.82Z</time></trkpt><trkpt lat="40.38101204840749" lon="9.72915278462446"><ele>27.0</ele><time>2026-04-30T07:15:45.82Z</time></trkpt><trkpt lat="40.38111351666443" lon="9.729245320257757"><ele>27.0</ele><time>2026-04-30T07:15:46.82Z</time></trkpt><trkpt lat="40.381204697776084" lon="9.72934921059851"><ele>27.0</ele><time>2026-04-30T07:15:47.82Z</time></trkpt><trkpt lat="40.381280600303306" lon="9.729475560313944"><ele>27.0</ele><time>2026-04-30T07:15:48.82Z</time></trkpt><trkpt lat="40.38132080524179" lon="9.729624973345262"><ele>27.0</ele><time>2026-04-30T07:15:49.82Z</time></trkpt><trkpt lat="40.38134441931875" lon="9.729768086027217"><ele>27.400000000000002</ele><time>2026-04-30T07:15:50.82Z</time></trkpt><trkpt lat="40.38136538631306" lon="9.729897571989612"><ele>27.800000000000004</ele><time>2026-04-30T07:15:51.82Z</time></trkpt><trkpt lat="40.381387112970486" lon="9.730032327571594"><ele>28.2</ele><time>2026-04-30T07:15:52.82Z</time></trkpt><trkpt lat="40.38141064021759" lon="9.730178251203627"><ele>28.6</ele><time>2026-04-30T07:15:53.82Z</time></trkpt><trkpt lat="40.38143679536279" lon="9.73033690106498"><ele>29.0</ele><time>2026-04-30T07:15:54.82Z</time></trkpt><trkpt lat="40.38146391540756" lon="9.730500219562263"><ele>29.0</ele><time>2026-04-30T07:15:55.82Z</time></trkpt><trkpt lat="40.38149113206697" lon="9.73066584663641"><ele>29.0</ele><time>2026-04-30T07:15:56.82Z</time></trkpt><trkpt lat="40.3815188050098" lon="9.730837376230141"><ele>29.0</ele><time>2026-04-30T07:15:57.82Z</time></trkpt><trkpt lat="40.381546744002655" lon="9.731010554960603"><ele>29.0</ele><time>2026-04-30T07:15:58.82Z</time></trkpt><trkpt lat="40.38157482298133" lon="9.73118460165249"><ele>28.75</ele><time>2026-04-30T07:15:59.82Z</time></trkpt><trkpt lat="40.38161936361664" lon="9.731353660912573"><ele>28.5</ele><time>2026-04-30T07:16:00.82Z</time></trkpt><trkpt lat="40.381646888448074" lon="9.731526741130565"><ele>28.25</ele><time>2026-04-30T07:16:01.82Z</time></trkpt><trkpt lat="40.38167264088301" lon="9.731706217060028"><ele>28.0</ele><time>2026-04-30T07:16:02.82Z</time></trkpt><trkpt lat="40.381692314977016" lon="9.73189317086712"><ele>28.0</ele><time>2026-04-30T07:16:03.82Z</time></trkpt><trkpt lat="40.38167816349968" lon="9.732082247637623"><ele>28.0</ele><time>2026-04-30T07:16:04.82Z</time></trkpt><trkpt lat="40.38167394592168" lon="9.732274215514213"><ele>28.0</ele><time>2026-04-30T07:16:05.82Z</time></trkpt><trkpt lat="40.381668916312236" lon="9.732466245237484"><ele>28.0</ele><time>2026-04-30T07:16:06.82Z</time></trkpt><trkpt lat="40.38166389192747" lon="9.732658075685302"><ele>27.666666666666668</ele><time>2026-04-30T07:16:07.82Z</time></trkpt><trkpt lat="40.38167313938802" lon="9.732855109721424"><ele>27.333333333333336</ele><time>2026-04-30T07:16:08.82Z</time></trkpt><trkpt lat="40.38165316984624" lon="9.733064255120329"><ele>27.0</ele><time>2026-04-30T07:16:09.819Z</time></trkpt><trkpt lat="40.38164643343262" lon="9.733277124160685"><ele>27.0</ele><time>2026-04-30T07:16:10.819Z</time></trkpt><trkpt lat="40.38165622042812" lon="9.733493799203508"><ele>27.0</ele><time>2026-04-30T07:16:11.819Z</time></trkpt><trkpt lat="40.38164949885321" lon="9.733714938001288"><ele>27.0</ele><time>2026-04-30T07:16:12.819Z</time></trkpt><trkpt lat="40.38164189741179" lon="9.733938510567404"><ele>26.333333333333336</ele><time>2026-04-30T07:16:13.819Z</time></trkpt><trkpt lat="40.381633504520266" lon="9.734161969857265"><ele>25.666666666666668</ele><time>2026-04-30T07:16:14.819Z</time></trkpt><trkpt lat="40.381626384113034" lon="9.734389474030774"><ele>25.0</ele><time>2026-04-30T07:16:15.819Z</time></trkpt><trkpt lat="40.38161990924339" lon="9.734620673731172"><ele>24.666666666666668</ele><time>2026-04-30T07:16:16.819Z</time></trkpt><trkpt lat="40.38161181896193" lon="9.734851706657148"><ele>24.333333333333336</ele><time>2026-04-30T07:16:17.819Z</time></trkpt><trkpt lat="40.381605518209824" lon="9.735070990604662"><ele>24.0</ele><time>2026-04-30T07:16:18.819Z</time></trkpt><trkpt lat="40.38159854548135" lon="9.735286548571418"><ele>23.75</ele><time>2026-04-30T07:16:19.819Z</time></trkpt><trkpt lat="40.38159443655246" lon="9.735480778053853"><ele>23.5</ele><time>2026-04-30T07:16:20.819Z</time></trkpt><trkpt lat="40.381603287234114" lon="9.73567454336682"><ele>23.25</ele><time>2026-04-30T07:16:21.819Z</time></trkpt><trkpt lat="40.381622469635616" lon="9.735868735624843"><ele>23.0</ele><time>2026-04-30T07:16:22.819Z</time></trkpt><trkpt lat="40.381660545144896" lon="9.736071091989684"><ele>21.666666666666668</ele><time>2026-04-30T07:16:23.819Z</time></trkpt><trkpt lat="40.38171780115847" lon="9.73627677653199"><ele>20.333333333333332</ele><time>2026-04-30T07:16:24.819Z</time></trkpt><trkpt lat="40.38177853347133" lon="9.736488245828985"><ele>19.0</ele><time>2026-04-30T07:16:25.819Z</time></trkpt><trkpt lat="40.38184320271025" lon="9.736700765328125"><ele>17.666666666666664</ele><time>2026-04-30T07:16:26.819Z</time></trkpt><trkpt lat="40.38191397771765" lon="9.736913188278336"><ele>16.333333333333332</ele><time>2026-04-30T07:16:27.819Z</time></trkpt><trkpt lat="40.38197921271097" lon="9.737119143200806"><ele>15.0</ele><time>2026-04-30T07:16:28.819Z</time></trkpt><trkpt lat="40.382054357343314" lon="9.737322481608812"><ele>15.0</ele><time>2026-04-30T07:16:29.819Z</time></trkpt><trkpt lat="40.38213194174752" lon="9.737527937559687"><ele>15.0</ele><time>2026-04-30T07:16:30.819Z</time></trkpt><trkpt lat="40.38221142193603" lon="9.737732838316626"><ele>15.0</ele><time>2026-04-30T07:16:31.819Z</time></trkpt><trkpt lat="40.38229398661115" lon="9.737935576122322"><ele>15.666666666666668</ele><time>2026-04-30T07:16:32.819Z</time></trkpt><trkpt lat="40.382372566571746" lon="9.738133698401196"><ele>16.333333333333336</ele><time>2026-04-30T07:16:33.819Z</time></trkpt><trkpt lat="40.382453907724575" lon="9.738325809121864"><ele>17.0</ele><time>2026-04-30T07:16:34.819Z</time></trkpt><trkpt lat="40.382522948672516" lon="9.73853258011081"><ele>15.333333333333334</ele><time>2026-04-30T07:16:35.819Z</time></trkpt><trkpt lat="40.38262421985279" lon="9.738719516852067"><ele>13.666666666666668</ele><time>2026-04-30T07:16:36.819Z</time></trkpt><trkpt lat="40.38274935461662" lon="9.738884313963942"><ele>12.0</ele><time>2026-04-30T07:16:37.819Z</time></trkpt><trkpt lat="40.38287453898869" lon="9.739052774254311"><ele>12.0</ele><time>2026-04-30T07:16:38.819Z</time></trkpt><trkpt lat="40.38300443812429" lon="9.739214270286526"><ele>12.0</ele><time>2026-04-30T07:16:39.817Z</time></trkpt><trkpt lat="40.38313549422552" lon="9.739377505380858"><ele>12.0</ele><time>2026-04-30T07:16:40.817Z</time></trkpt><trkpt lat="40.383269256099595" lon="9.739544224834633"><ele>12.0</ele><time>2026-04-30T07:16:41.817Z</time></trkpt><trkpt lat="40.38340760339985" lon="9.739710976238396"><ele>12.0</ele><time>2026-04-30T07:16:42.817Z</time></trkpt><trkpt lat="40.38354662403178" lon="9.73987626152617"><ele>12.0</ele><time>2026-04-30T07:16:43.818Z</time></trkpt><trkpt lat="40.38368438098531" lon="9.740039403442154"><ele>12.0</ele><time>2026-04-30T07:16:44.818Z</time></trkpt><trkpt lat="40.383818267963" lon="9.740205471464083"><ele>12.0</ele><time>2026-04-30T07:16:45.817Z</time></trkpt><trkpt lat="40.38395346475203" lon="9.740365504156944"><ele>12.0</ele><time>2026-04-30T07:16:46.817Z</time></trkpt><trkpt lat="40.38407520671161" lon="9.740520287426632"><ele>12.333333333333332</ele><time>2026-04-30T07:16:47.817Z</time></trkpt><trkpt lat="40.38419328900504" lon="9.740664608150533"><ele>12.666666666666666</ele><time>2026-04-30T07:16:48.817Z</time></trkpt><trkpt lat="40.38430859217078" lon="9.740800117705486"><ele>13.0</ele><time>2026-04-30T07:16:49.817Z</time></trkpt><trkpt lat="40.384431543771406" lon="9.74093037599228"><ele>13.0</ele><time>2026-04-30T07:16:50.817Z</time></trkpt><trkpt lat="40.38456487814139" lon="9.741047708974847"><ele>13.0</ele><time>2026-04-30T07:16:51.817Z</time></trkpt><trkpt lat="40.38470990796333" lon="9.741141403499787"><ele>13.0</ele><time>2026-04-30T07:16:52.817Z</time></trkpt><trkpt lat="40.38486539936571" lon="9.741228120143306"><ele>12.333333333333332</ele><time>2026-04-30T07:16:53.817Z</time></trkpt><trkpt lat="40.38502958570077" lon="9.74130423809732"><ele>11.666666666666666</ele><time>2026-04-30T07:16:54.817Z</time></trkpt><trkpt lat="40.38520172678299" lon="9.741372086994422"><ele>11.0</ele><time>2026-04-30T07:16:55.817Z</time></trkpt><trkpt lat="40.385374021194394" lon="9.741433503089869"><ele>11.333333333333332</ele><time>2026-04-30T07:16:56.817Z</time></trkpt><trkpt lat="40.385548365215314" lon="9.741499789217954"><ele>11.666666666666666</ele><time>2026-04-30T07:16:57.817Z</time></trkpt><trkpt lat="40.38571557758564" lon="9.741565431766853"><ele>12.0</ele><time>2026-04-30T07:16:58.817Z</time></trkpt><trkpt lat="40.385876459754364" lon="9.741628702622073"><ele>12.0</ele><time>2026-04-30T07:16:59.817Z</time></trkpt><trkpt lat="40.386032564922665" lon="9.74169328978567"><ele>12.0</ele><time>2026-04-30T07:17:00.817Z</time></trkpt><trkpt lat="40.38617936223114" lon="9.741749671689757"><ele>12.0</ele><time>2026-04-30T07:17:01.817Z</time></trkpt><trkpt lat="40.386327140981486" lon="9.741793882667901"><ele>12.0</ele><time>2026-04-30T07:17:02.817Z</time></trkpt><trkpt lat="40.38647766546834" lon="9.74182344936424"><ele>12.0</ele><time>2026-04-30T07:17:03.817Z</time></trkpt><trkpt lat="40.386630718634066" lon="9.741828602625043"><ele>12.0</ele><time>2026-04-30T07:17:04.817Z</time></trkpt><trkpt lat="40.38677600456687" lon="9.74182357807794"><ele>12.0</ele><time>2026-04-30T07:17:05.817Z</time></trkpt><trkpt lat="40.38690958830981" lon="9.74182381825704"><ele>12.0</ele><time>2026-04-30T07:17:06.817Z</time></trkpt><trkpt lat="40.387031151250056" lon="9.741844117419681"><ele>12.0</ele><time>2026-04-30T07:17:07.817Z</time></trkpt><trkpt lat="40.38714973184957" lon="9.741884733089899"><ele>12.0</ele><time>2026-04-30T07:17:08.817Z</time></trkpt><trkpt lat="40.387264488226016" lon="9.741950519557884"><ele>13.75</ele><time>2026-04-30T07:17:09.817Z</time></trkpt><trkpt lat="40.387368121240016" lon="9.742033697066724"><ele>15.5</ele><time>2026-04-30T07:17:10.817Z</time></trkpt><trkpt lat="40.38745857020266" lon="9.742134373608376"><ele>17.25</ele><time>2026-04-30T07:17:11.817Z</time></trkpt><trkpt lat="40.38753323126171" lon="9.74226164244664"><ele>19.0</ele><time>2026-04-30T07:17:12.817Z</time></trkpt><trkpt lat="40.38759249649899" lon="9.742411782024535"><ele>19.0</ele><time>2026-04-30T07:17:13.817Z</time></trkpt><trkpt lat="40.387638210989195" lon="9.742581842507331"><ele>19.0</ele><time>2026-04-30T07:17:14.817Z</time></trkpt><trkpt lat="40.387676666557276" lon="9.74276873359039"><ele>19.0</ele><time>2026-04-30T07:17:15.817Z</time></trkpt><trkpt lat="40.38771374776548" lon="9.742965540149179"><ele>19.0</ele><time>2026-04-30T07:17:16.817Z</time></trkpt><trkpt lat="40.38776083186383" lon="9.743176769036582"><ele>19.0</ele><time>2026-04-30T07:17:17.817Z</time></trkpt><trkpt lat="40.38781065269967" lon="9.743394735919544"><ele>19.0</ele><time>2026-04-30T07:17:18.817Z</time></trkpt><trkpt lat="40.387859696036074" lon="9.743611954367891"><ele>19.0</ele><time>2026-04-30T07:17:19.817Z</time></trkpt><trkpt lat="40.38791036017077" lon="9.743828782798223"><ele>19.333333333333332</ele><time>2026-04-30T07:17:20.817Z</time></trkpt><trkpt lat="40.387960150400986" lon="9.744043572637086"><ele>19.666666666666668</ele><time>2026-04-30T07:17:21.817Z</time></trkpt><trkpt lat="40.38801844917818" lon="9.744258042280443"><ele>20.0</ele><time>2026-04-30T07:17:22.818Z</time></trkpt><trkpt lat="40.38808140623511" lon="9.744469586036729"><ele>19.333333333333336</ele><time>2026-04-30T07:17:23.82Z</time></trkpt><trkpt lat="40.38814647429218" lon="9.744685212269339"><ele>18.666666666666668</ele><time>2026-04-30T07:17:24.822Z</time></trkpt><trkpt lat="40.388215322134755" lon="9.744905750359761"><ele>18.0</ele><time>2026-04-30T07:17:25.823Z</time></trkpt><trkpt lat="40.38828278293827" lon="9.745128912377039"><ele>17.666666666666668</ele><time>2026-04-30T07:17:26.824Z</time></trkpt><trkpt lat="40.388352104043456" lon="9.745350074650377"><ele>17.333333333333336</ele><time>2026-04-30T07:17:27.826Z</time></trkpt><trkpt lat="40.38842485407593" lon="9.745571290795322"><ele>17.0</ele><time>2026-04-30T07:17:28.827Z</time></trkpt><trkpt lat="40.388497113398174" lon="9.745791133588641"><ele>17.0</ele><time>2026-04-30T07:17:29.828Z</time></trkpt><trkpt lat="40.38857028815407" lon="9.746014406898153"><ele>17.0</ele><time>2026-04-30T07:17:30.829Z</time></trkpt><trkpt lat="40.388639894784355" lon="9.746236491695052"><ele>17.0</ele><time>2026-04-30T07:17:31.83Z</time></trkpt><trkpt lat="40.38871643970421" lon="9.746462452249549"><ele>16.666666666666668</ele><time>2026-04-30T07:17:32.831Z</time></trkpt><trkpt lat="40.388791799800174" lon="9.746689530399285"><ele>16.333333333333332</ele><time>2026-04-30T07:17:33.832Z</time></trkpt><trkpt lat="40.388864950543635" lon="9.746914661687422"><ele>16.0</ele><time>2026-04-30T07:17:34.832Z</time></trkpt><trkpt lat="40.388940014526675" lon="9.74714195389966"><ele>16.0</ele><time>2026-04-30T07:17:35.833Z</time></trkpt><trkpt lat="40.38901773822059" lon="9.747370485757386"><ele>16.0</ele><time>2026-04-30T07:17:36.834Z</time></trkpt><trkpt lat="40.38909452637068" lon="9.747599904733717"><ele>16.0</ele><time>2026-04-30T07:17:37.835Z</time></trkpt><trkpt lat="40.38917184175475" lon="9.747829982562315"><ele>15.333333333333332</ele><time>2026-04-30T07:17:38.835Z</time></trkpt><trkpt lat="40.389254860387695" lon="9.748065709261214"><ele>14.666666666666668</ele><time>2026-04-30T07:17:39.836Z</time></trkpt><trkpt lat="40.389337434816454" lon="9.748302401179755"><ele>14.0</ele><time>2026-04-30T07:17:40.836Z</time></trkpt><trkpt lat="40.38941711288885" lon="9.74853798558996"><ele>14.0</ele><time>2026-04-30T07:17:41.837Z</time></trkpt><trkpt lat="40.38949657016245" lon="9.748771296427453"><ele>14.0</ele><time>2026-04-30T07:17:42.837Z</time></trkpt><trkpt lat="40.38957772640545" lon="9.749006549158354"><ele>14.0</ele><time>2026-04-30T07:17:43.838Z</time></trkpt><trkpt lat="40.3896581570361" lon="9.749242003630355"><ele>14.666666666666668</ele><time>2026-04-30T07:17:44.838Z</time></trkpt><trkpt lat="40.389736123115874" lon="9.749472128416734"><ele>15.333333333333332</ele><time>2026-04-30T07:17:45.838Z</time></trkpt><trkpt lat="40.38981190429223" lon="9.74970430093578"><ele>16.0</ele><time>2026-04-30T07:17:46.839Z</time></trkpt><trkpt lat="40.38987642964594" lon="9.74994922027508"><ele>16.0</ele><time>2026-04-30T07:17:47.839Z</time></trkpt><trkpt lat="40.38995482663779" lon="9.750184597730902"><ele>16.0</ele><time>2026-04-30T07:17:48.839Z</time></trkpt><trkpt lat="40.3900341895781" lon="9.750422875227509"><ele>16.0</ele><time>2026-04-30T07:17:49.84Z</time></trkpt><trkpt lat="40.39011348383654" lon="9.750660946582927"><ele>16.333333333333332</ele><time>2026-04-30T07:17:50.84Z</time></trkpt><trkpt lat="40.390192136552805" lon="9.750898481946745"><ele>16.666666666666668</ele><time>2026-04-30T07:17:51.84Z</time></trkpt><trkpt lat="40.39027010517766" lon="9.751134865787202"><ele>17.0</ele><time>2026-04-30T07:17:52.841Z</time></trkpt><trkpt lat="40.39034804203402" lon="9.75137115336798"><ele>17.333333333333336</ele><time>2026-04-30T07:17:53.841Z</time></trkpt><trkpt lat="40.39042658954445" lon="9.751609292162373"><ele>17.666666666666668</ele><time>2026-04-30T07:17:54.841Z</time></trkpt><trkpt lat="40.39051915796728" lon="9.751839537285688"><ele>18.0</ele><time>2026-04-30T07:17:55.841Z</time></trkpt><trkpt lat="40.390595461130204" lon="9.752077292297033"><ele>18.0</ele><time>2026-04-30T07:17:56.841Z</time></trkpt><trkpt lat="40.39067143257689" lon="9.752314789154935"><ele>18.0</ele><time>2026-04-30T07:17:57.841Z</time></trkpt><trkpt lat="40.39074336321006" lon="9.75254945277748"><ele>18.0</ele><time>2026-04-30T07:17:58.842Z</time></trkpt><trkpt lat="40.39081431812043" lon="9.752780309325592"><ele>18.333333333333332</ele><time>2026-04-30T07:17:59.842Z</time></trkpt><trkpt lat="40.39088899493225" lon="9.753002585473569"><ele>18.666666666666664</ele><time>2026-04-30T07:18:00.842Z</time></trkpt><trkpt lat="40.39097336225919" lon="9.753200673613847"><ele>19.0</ele><time>2026-04-30T07:18:01.842Z</time></trkpt><trkpt lat="40.39106250235747" lon="9.753373049577355"><ele>19.0</ele><time>2026-04-30T07:18:02.842Z</time></trkpt><trkpt lat="40.391161387047305" lon="9.753529962224645"><ele>19.0</ele><time>2026-04-30T07:18:03.842Z</time></trkpt><trkpt lat="40.391273947567164" lon="9.753675583316586"><ele>19.0</ele><time>2026-04-30T07:18:04.842Z</time></trkpt><trkpt lat="40.391405161019186" lon="9.753812196191175"><ele>18.666666666666664</ele><time>2026-04-30T07:18:05.842Z</time></trkpt><trkpt lat="40.39155361701071" lon="9.753947265975253"><ele>18.333333333333332</ele><time>2026-04-30T07:18:06.842Z</time></trkpt><trkpt lat="40.39170849970264" lon="9.754074987186202"><ele>18.0</ele><time>2026-04-30T07:18:07.843Z</time></trkpt><trkpt lat="40.3918714312039" lon="9.754206402696688"><ele>18.0</ele><time>2026-04-30T07:18:08.843Z</time></trkpt><trkpt lat="40.39202912738225" lon="9.754342739509193"><ele>18.0</ele><time>2026-04-30T07:18:09.843Z</time></trkpt><trkpt lat="40.3921889638676" lon="9.754477386878857"><ele>18.0</ele><time>2026-04-30T07:18:10.843Z</time></trkpt><trkpt lat="40.39235200579721" lon="9.754612390503855"><ele>17.666666666666668</ele><time>2026-04-30T07:18:11.843Z</time></trkpt><trkpt lat="40.39251071461865" lon="9.754745071323155"><ele>17.333333333333336</ele><time>2026-04-30T07:18:12.843Z</time></trkpt><trkpt lat="40.39267420982727" lon="9.754884017729017"><ele>17.0</ele><time>2026-04-30T07:18:13.843Z</time></trkpt><trkpt lat="40.392835475659815" lon="9.755021209107069"><ele>17.0</ele><time>2026-04-30T07:18:14.843Z</time></trkpt><trkpt lat="40.3929941078013" lon="9.755157346016809"><ele>17.0</ele><time>2026-04-30T07:18:15.843Z</time></trkpt><trkpt lat="40.3931538333119" lon="9.755294870915785"><ele>17.0</ele><time>2026-04-30T07:18:16.843Z</time></trkpt><trkpt lat="40.39331711455931" lon="9.755431308117673"><ele>17.333333333333336</ele><time>2026-04-30T07:18:17.843Z</time></trkpt><trkpt lat="40.39347931265163" lon="9.755571223972328"><ele>17.666666666666668</ele><time>2026-04-30T07:18:18.843Z</time></trkpt><trkpt lat="40.39364020346054" lon="9.755707405703669"><ele>18.0</ele><time>2026-04-30T07:18:19.843Z</time></trkpt><trkpt lat="40.39380265620574" lon="9.755842141531438"><ele>18.333333333333332</ele><time>2026-04-30T07:18:20.843Z</time></trkpt><trkpt lat="40.39396474741303" lon="9.755977233679761"><ele>18.666666666666664</ele><time>2026-04-30T07:18:21.843Z</time></trkpt><trkpt lat="40.39412105976271" lon="9.756111342271657"><ele>19.0</ele><time>2026-04-30T07:18:22.843Z</time></trkpt><trkpt lat="40.3942789974317" lon="9.756244837578988"><ele>19.0</ele><time>2026-04-30T07:18:23.843Z</time></trkpt><trkpt lat="40.394435626304706" lon="9.756373139092814"><ele>19.0</ele><time>2026-04-30T07:18:24.843Z</time></trkpt><trkpt lat="40.394598778675835" lon="9.756493149531448"><ele>19.0</ele><time>2026-04-30T07:18:25.843Z</time></trkpt><trkpt lat="40.39476291390913" lon="9.756604059645067"><ele>19.666666666666664</ele><time>2026-04-30T07:18:26.843Z</time></trkpt><trkpt lat="40.39493646451547" lon="9.756707142200693"><ele>20.333333333333332</ele><time>2026-04-30T07:18:27.843Z</time></trkpt><trkpt lat="40.39511119685969" lon="9.756805064423336"><ele>21.0</ele><time>2026-04-30T07:18:28.843Z</time></trkpt><trkpt lat="40.395289106356294" lon="9.75689939588347"><ele>21.666666666666668</ele><time>2026-04-30T07:18:29.843Z</time></trkpt><trkpt lat="40.3954680321342" lon="9.756992284815105"><ele>22.333333333333336</ele><time>2026-04-30T07:18:30.843Z</time></trkpt><trkpt lat="40.39564956331794" lon="9.757081614095759"><ele>23.0</ele><time>2026-04-30T07:18:31.843Z</time></trkpt><trkpt lat="40.39583282029873" lon="9.75717104862016"><ele>23.0</ele><time>2026-04-30T07:18:32.843Z</time></trkpt><trkpt lat="40.39601891962699" lon="9.757262891235454"><ele>23.0</ele><time>2026-04-30T07:18:33.843Z</time></trkpt><trkpt lat="40.396200865219726" lon="9.757355618598881"><ele>23.0</ele><time>2026-04-30T07:18:34.843Z</time></trkpt><trkpt lat="40.396384942016255" lon="9.757451155453301"><ele>23.0</ele><time>2026-04-30T07:18:35.843Z</time></trkpt><trkpt lat="40.396568911954056" lon="9.757545558617995"><ele>23.0</ele><time>2026-04-30T07:18:36.843Z</time></trkpt><trkpt lat="40.39675224554899" lon="9.757638598922114"><ele>23.0</ele><time>2026-04-30T07:18:37.843Z</time></trkpt><trkpt lat="40.396937310108605" lon="9.757731096174137"><ele>23.0</ele><time>2026-04-30T07:18:38.843Z</time></trkpt><trkpt lat="40.39711836482569" lon="9.757820104543383"><ele>23.0</ele><time>2026-04-30T07:18:39.843Z</time></trkpt><trkpt lat="40.397303537656576" lon="9.75790813967098"><ele>23.0</ele><time>2026-04-30T07:18:40.843Z</time></trkpt><trkpt lat="40.3974922727687" lon="9.75799820763848"><ele>23.0</ele><time>2026-04-30T07:18:41.843Z</time></trkpt><trkpt lat="40.39768102837505" lon="9.7580898275279"><ele>23.0</ele><time>2026-04-30T07:18:42.843Z</time></trkpt><trkpt lat="40.39787111740967" lon="9.758181758842907"><ele>23.0</ele><time>2026-04-30T07:18:43.843Z</time></trkpt><trkpt lat="40.39806207153215" lon="9.758273870553916"><ele>23.333333333333336</ele><time>2026-04-30T07:18:44.843Z</time></trkpt><trkpt lat="40.39825071890271" lon="9.758364955466686"><ele>23.666666666666668</ele><time>2026-04-30T07:18:45.841Z</time></trkpt><trkpt lat="40.39843866665602" lon="9.758457366675852"><ele>24.0</ele><time>2026-04-30T07:18:46.841Z</time></trkpt><trkpt lat="40.39862769939492" lon="9.758550707460998"><ele>24.0</ele><time>2026-04-30T07:18:47.841Z</time></trkpt><trkpt lat="40.398815539366026" lon="9.758644733179777"><ele>24.0</ele><time>2026-04-30T07:18:48.841Z</time></trkpt><trkpt lat="40.3990001346426" lon="9.758738056108477"><ele>24.0</ele><time>2026-04-30T07:18:49.841Z</time></trkpt><trkpt lat="40.399184136607516" lon="9.758829722407054"><ele>24.333333333333336</ele><time>2026-04-30T07:18:50.841Z</time></trkpt><trkpt lat="40.399369069892145" lon="9.758921278073739"><ele>24.666666666666668</ele><time>2026-04-30T07:18:51.841Z</time></trkpt><trkpt lat="40.39955329118065" lon="9.759010913503838"><ele>25.0</ele><time>2026-04-30T07:18:52.84Z</time></trkpt><trkpt lat="40.39974156194081" lon="9.759102369199484"><ele>25.333333333333336</ele><time>2026-04-30T07:18:53.84Z</time></trkpt><trkpt lat="40.399933520154775" lon="9.759191993657588"><ele>25.666666666666664</ele><time>2026-04-30T07:18:54.842Z</time></trkpt><trkpt lat="40.40012495920741" lon="9.75928194123214"><ele>26.0</ele><time>2026-04-30T07:18:55.841Z</time></trkpt><trkpt lat="40.40031376305686" lon="9.759372413984208"><ele>26.666666666666664</ele><time>2026-04-30T07:18:56.841Z</time></trkpt><trkpt lat="40.40050414530796" lon="9.759464493460799"><ele>27.333333333333336</ele><time>2026-04-30T07:18:57.841Z</time></trkpt><trkpt lat="40.400697408246906" lon="9.759559709813725"><ele>28.0</ele><time>2026-04-30T07:18:58.84Z</time></trkpt><trkpt lat="40.40089005402816" lon="9.7596570377964"><ele>28.0</ele><time>2026-04-30T07:18:59.84Z</time></trkpt><trkpt lat="40.401086518951054" lon="9.75975638726234"><ele>28.0</ele><time>2026-04-30T07:19:00.84Z</time></trkpt><trkpt lat="40.401284769939636" lon="9.759853852706472"><ele>28.0</ele><time>2026-04-30T07:19:01.84Z</time></trkpt><trkpt lat="40.40148663011685" lon="9.759955576700763"><ele>28.666666666666668</ele><time>2026-04-30T07:19:02.84Z</time></trkpt><trkpt lat="40.40168539286022" lon="9.760056549853086"><ele>29.333333333333336</ele><time>2026-04-30T07:19:03.84Z</time></trkpt><trkpt lat="40.401879714298275" lon="9.760154756448227"><ele>30.0</ele><time>2026-04-30T07:19:04.84Z</time></trkpt><trkpt lat="40.40207383679321" lon="9.76025258526522"><ele>31.0</ele><time>2026-04-30T07:19:05.84Z</time></trkpt><trkpt lat="40.40227132052868" lon="9.760347369198378"><ele>32.0</ele><time>2026-04-30T07:19:06.84Z</time></trkpt><trkpt lat="40.40246655672351" lon="9.760441204484001"><ele>33.0</ele><time>2026-04-30T07:19:07.84Z</time></trkpt><trkpt lat="40.402653761675765" lon="9.760535820574818"><ele>33.0</ele><time>2026-04-30T07:19:08.84Z</time></trkpt><trkpt lat="40.402840294884584" lon="9.760623929516791"><ele>33.0</ele><time>2026-04-30T07:19:09.84Z</time></trkpt><trkpt lat="40.403026964573826" lon="9.76071039789582"><ele>33.0</ele><time>2026-04-30T07:19:10.84Z</time></trkpt><trkpt lat="40.40321190272337" lon="9.76079990110138"><ele>33.0</ele><time>2026-04-30T07:19:11.84Z</time></trkpt><trkpt lat="40.403397701900396" lon="9.76088937832575"><ele>33.0</ele><time>2026-04-30T07:19:12.84Z</time></trkpt><trkpt lat="40.40358107848692" lon="9.760982799844244"><ele>33.0</ele><time>2026-04-30T07:19:13.84Z</time></trkpt><trkpt lat="40.40376292248485" lon="9.761078709446943"><ele>32.0</ele><time>2026-04-30T07:19:14.84Z</time></trkpt><trkpt lat="40.40394685250171" lon="9.761171394638364"><ele>31.0</ele><time>2026-04-30T07:19:15.84Z</time></trkpt><trkpt lat="40.4041321208395" lon="9.761262241308396"><ele>30.0</ele><time>2026-04-30T07:19:16.84Z</time></trkpt><trkpt lat="40.404318805532085" lon="9.761352462938008"><ele>30.0</ele><time>2026-04-30T07:19:17.84Z</time></trkpt><trkpt lat="40.40450558839064" lon="9.761443383939861"><ele>30.0</ele><time>2026-04-30T07:19:18.84Z</time></trkpt><trkpt lat="40.40469246410074" lon="9.761535081252706"><ele>30.0</ele><time>2026-04-30T07:19:19.84Z</time></trkpt><trkpt lat="40.40488048281971" lon="9.76163037180276"><ele>29.666666666666664</ele><time>2026-04-30T07:19:20.84Z</time></trkpt><trkpt lat="40.405074682840336" lon="9.761722300951325"><ele>29.333333333333332</ele><time>2026-04-30T07:19:21.84Z</time></trkpt><trkpt lat="40.405268239595955" lon="9.761819746679274"><ele>29.0</ele><time>2026-04-30T07:19:22.84Z</time></trkpt><trkpt lat="40.40546315995187" lon="9.76191727583564"><ele>27.666666666666664</ele><time>2026-04-30T07:19:23.84Z</time></trkpt><trkpt lat="40.405660164514096" lon="9.762017776485948"><ele>26.333333333333336</ele><time>2026-04-30T07:19:24.84Z</time></trkpt><trkpt lat="40.405859919740344" lon="9.762118391154285"><ele>25.0</ele><time>2026-04-30T07:19:25.84Z</time></trkpt><trkpt lat="40.406062584096084" lon="9.762217555570729"><ele>25.0</ele><time>2026-04-30T07:19:26.84Z</time></trkpt><trkpt lat="40.406257250569276" lon="9.762319030155773"><ele>25.0</ele><time>2026-04-30T07:19:27.84Z</time></trkpt><trkpt lat="40.40644918203258" lon="9.76241692237682"><ele>25.0</ele><time>2026-04-30T07:19:28.84Z</time></trkpt><trkpt lat="40.406635007079736" lon="9.762513197496132"><ele>24.333333333333336</ele><time>2026-04-30T07:19:29.84Z</time></trkpt><trkpt lat="40.40681786815802" lon="9.762606251149958"><ele>23.666666666666668</ele><time>2026-04-30T07:19:30.84Z</time></trkpt><trkpt lat="40.40699591087072" lon="9.762694105261662"><ele>23.0</ele><time>2026-04-30T07:19:31.839Z</time></trkpt><trkpt lat="40.40714758706637" lon="9.762773589919309"><ele>22.799999999999997</ele><time>2026-04-30T07:19:32.839Z</time></trkpt><trkpt lat="40.407274253234334" lon="9.762839076384775"><ele>22.6</ele><time>2026-04-30T07:19:33.839Z</time></trkpt><trkpt lat="40.40738267322705" lon="9.762889376832359"><ele>22.4</ele><time>2026-04-30T07:19:34.839Z</time></trkpt><trkpt lat="40.4074773928525" lon="9.762936429202497"><ele>22.200000000000003</ele><time>2026-04-30T07:19:35.839Z</time></trkpt><trkpt lat="40.407545708352416" lon="9.762982368776202"><ele>22.0</ele><time>2026-04-30T07:19:36.839Z</time></trkpt><trkpt lat="40.40760145805072" lon="9.763025063216983"><ele>22.0</ele><time>2026-04-30T07:19:37.839Z</time></trkpt><trkpt lat="40.407623561692155" lon="9.763171111354998"><ele>22.0</ele><time>2026-04-30T07:19:40.839Z</time></trkpt><trkpt lat="40.407588698101364" lon="9.76325698716322"><ele>22.0</ele><time>2026-04-30T07:19:41.839Z</time></trkpt><trkpt lat="40.4075434237987" lon="9.763346778683019"><ele>22.0</ele><time>2026-04-30T07:19:42.839Z</time></trkpt><trkpt lat="40.40748702839902" lon="9.763456688224862"><ele>22.0</ele><time>2026-04-30T07:19:43.839Z</time></trkpt><trkpt lat="40.40742009562086" lon="9.76358200984563"><ele>22.0</ele><time>2026-04-30T07:19:44.839Z</time></trkpt><trkpt lat="40.407348666123546" lon="9.763722003766082"><ele>22.0</ele><time>2026-04-30T07:19:45.839Z</time></trkpt><trkpt lat="40.40727455866402" lon="9.763851780512956"><ele>22.0</ele><time>2026-04-30T07:19:46.839Z</time></trkpt><trkpt lat="40.40720590240821" lon="9.763974288470942"><ele>22.0</ele><time>2026-04-30T07:19:47.839Z</time></trkpt><trkpt lat="40.40714689114206" lon="9.76408531856782"><ele>22.0</ele><time>2026-04-30T07:19:48.839Z</time></trkpt><trkpt lat="40.40710390530447" lon="9.764173906257733"><ele>22.0</ele><time>2026-04-30T07:19:49.839Z</time></trkpt><trkpt lat="40.40709250479461" lon="9.764280726638649"><ele>22.0</ele><time>2026-04-30T07:19:51.839Z</time></trkpt><trkpt lat="40.4071711841618" lon="9.76434980166204"><ele>22.0</ele><time>2026-04-30T07:19:53.839Z</time></trkpt><trkpt lat="40.4072716322859" lon="9.76439184803251"><ele>22.0</ele><time>2026-04-30T07:19:54.839Z</time></trkpt><trkpt lat="40.40737268210812" lon="9.764432145602871"><ele>21.75</ele><time>2026-04-30T07:19:55.839Z</time></trkpt><trkpt lat="40.40747853340249" lon="9.764505601860249"><ele>21.5</ele><time>2026-04-30T07:19:56.839Z</time></trkpt><trkpt lat="40.40760624809496" lon="9.764579317118027"><ele>21.25</ele><time>2026-04-30T07:19:57.839Z</time></trkpt><trkpt lat="40.40773585453276" lon="9.764655294343871"><ele>21.0</ele><time>2026-04-30T07:19:58.839Z</time></trkpt><trkpt lat="40.40786723985684" lon="9.764729245960766"><ele>20.666666666666668</ele><time>2026-04-30T07:19:59.839Z</time></trkpt><trkpt lat="40.408007303551976" lon="9.764804518062094"><ele>20.333333333333336</ele><time>2026-04-30T07:20:00.839Z</time></trkpt><trkpt lat="40.4081517307408" lon="9.764884329801818"><ele>20.0</ele><time>2026-04-30T07:20:01.839Z</time></trkpt><trkpt lat="40.408303727792955" lon="9.764966621945902"><ele>20.0</ele><time>2026-04-30T07:20:02.839Z</time></trkpt><trkpt lat="40.408449190251595" lon="9.765048165427183"><ele>20.0</ele><time>2026-04-30T07:20:03.839Z</time></trkpt><trkpt lat="40.40859852457747" lon="9.765133226449946"><ele>20.0</ele><time>2026-04-30T07:20:04.839Z</time></trkpt><trkpt lat="40.408746395319746" lon="9.765213424697501"><ele>20.0</ele><time>2026-04-30T07:20:05.839Z</time></trkpt><trkpt lat="40.40889388609303" lon="9.765292416993228"><ele>20.0</ele><time>2026-04-30T07:20:06.839Z</time></trkpt><trkpt lat="40.40904103232946" lon="9.765376412665974"><ele>20.0</ele><time>2026-04-30T07:20:07.839Z</time></trkpt><trkpt lat="40.40918717331556" lon="9.765458978231814"><ele>20.0</ele><time>2026-04-30T07:20:08.839Z</time></trkpt><trkpt lat="40.409341256746764" lon="9.765544456275219"><ele>20.0</ele><time>2026-04-30T07:20:09.839Z</time></trkpt><trkpt lat="40.409495365957035" lon="9.765631374435797"><ele>20.0</ele><time>2026-04-30T07:20:10.839Z</time></trkpt><trkpt lat="40.40964755806443" lon="9.765726082517045"><ele>20.333333333333336</ele><time>2026-04-30T07:20:11.839Z</time></trkpt><trkpt lat="40.40980595862261" lon="9.76581319794033"><ele>20.666666666666668</ele><time>2026-04-30T07:20:12.839Z</time></trkpt><trkpt lat="40.409964446194294" lon="9.765898752177495"><ele>21.0</ele><time>2026-04-30T07:20:13.838Z</time></trkpt><trkpt lat="40.41011706473676" lon="9.765984096248449"><ele>21.0</ele><time>2026-04-30T07:20:14.838Z</time></trkpt><trkpt lat="40.41027545475217" lon="9.766060314042054"><ele>21.0</ele><time>2026-04-30T07:20:15.838Z</time></trkpt><trkpt lat="40.41043708637174" lon="9.76612459266441"><ele>21.0</ele><time>2026-04-30T07:20:16.838Z</time></trkpt><trkpt lat="40.41060470237593" lon="9.766188482932119"><ele>21.0</ele><time>2026-04-30T07:20:17.838Z</time></trkpt><trkpt lat="40.410774789943154" lon="9.766249255663665"><ele>21.0</ele><time>2026-04-30T07:20:18.838Z</time></trkpt><trkpt lat="40.41094557027046" lon="9.76630681593056"><ele>21.0</ele><time>2026-04-30T07:20:19.838Z</time></trkpt><trkpt lat="40.41111666357732" lon="9.76636660285125"><ele>21.0</ele><time>2026-04-30T07:20:20.838Z</time></trkpt><trkpt lat="40.411287103909046" lon="9.766427389087509"><ele>21.0</ele><time>2026-04-30T07:20:21.838Z</time></trkpt><trkpt lat="40.41145486155069" lon="9.76649070999321"><ele>21.0</ele><time>2026-04-30T07:20:22.838Z</time></trkpt><trkpt lat="40.41161796648565" lon="9.766552060739052"><ele>21.0</ele><time>2026-04-30T07:20:23.838Z</time></trkpt><trkpt lat="40.41176881671743" lon="9.766607639585478"><ele>21.0</ele><time>2026-04-30T07:20:24.838Z</time></trkpt><trkpt lat="40.41191811078694" lon="9.766657814580892"><ele>21.0</ele><time>2026-04-30T07:20:25.838Z</time></trkpt><trkpt lat="40.412066266657725" lon="9.766710831554322"><ele>21.0</ele><time>2026-04-30T07:20:26.838Z</time></trkpt><trkpt lat="40.41220878761605" lon="9.766763360977524"><ele>21.0</ele><time>2026-04-30T07:20:27.838Z</time></trkpt><trkpt lat="40.412345134881306" lon="9.766817236803025"><ele>21.0</ele><time>2026-04-30T07:20:28.838Z</time></trkpt><trkpt lat="40.412477886152864" lon="9.76688002647238"><ele>21.0</ele><time>2026-04-30T07:20:29.838Z</time></trkpt><trkpt lat="40.41260440143485" lon="9.766950898031325"><ele>21.0</ele><time>2026-04-30T07:20:30.838Z</time></trkpt><trkpt lat="40.412727725023466" lon="9.767037295189784"><ele>21.0</ele><time>2026-04-30T07:20:31.838Z</time></trkpt><trkpt lat="40.41283355330339" lon="9.767128630228376"><ele>21.0</ele><time>2026-04-30T07:20:32.838Z</time></trkpt><trkpt lat="40.41292736144993" lon="9.767216458375858"><ele>21.0</ele><time>2026-04-30T07:20:33.838Z</time></trkpt><trkpt lat="40.412995741594976" lon="9.767301668929836"><ele>21.5</ele><time>2026-04-30T07:20:34.838Z</time></trkpt><trkpt lat="40.41305059559554" lon="9.767388455349664"><ele>22.0</ele><time>2026-04-30T07:20:35.838Z</time></trkpt><trkpt lat="40.41308895469563" lon="9.76749115731974"><ele>22.5</ele><time>2026-04-30T07:20:36.838Z</time></trkpt><trkpt lat="40.41310160288308" lon="9.767581534843218"><ele>23.0</ele><time>2026-04-30T07:20:37.838Z</time></trkpt><trkpt lat="40.41309004246374" lon="9.767685643142938"><ele>23.5</ele><time>2026-04-30T07:20:38.838Z</time></trkpt><trkpt lat="40.41306635357761" lon="9.767800815639157"><ele>24.0</ele><time>2026-04-30T07:20:39.838Z</time></trkpt><trkpt lat="40.41303517375955" lon="9.76793253585672"><ele>24.0</ele><time>2026-04-30T07:20:40.838Z</time></trkpt><trkpt lat="40.4130098671472" lon="9.76808374142512"><ele>24.0</ele><time>2026-04-30T07:20:41.838Z</time></trkpt><trkpt lat="40.41298971642107" lon="9.768230803393148"><ele>24.0</ele><time>2026-04-30T07:20:42.838Z</time></trkpt><trkpt lat="40.41296698423219" lon="9.76836059591237"><ele>24.0</ele><time>2026-04-30T07:20:43.838Z</time></trkpt><trkpt lat="40.41294260219922" lon="9.768448000064538"><ele>24.0</ele><time>2026-04-30T07:20:44.838Z</time></trkpt><trkpt lat="40.41286624775781" lon="9.768528048787998"><ele>23.6</ele><time>2026-04-30T07:20:46.838Z</time></trkpt><trkpt lat="40.41274606992574" lon="9.76851102811382"><ele>23.2</ele><time>2026-04-30T07:20:48.838Z</time></trkpt><trkpt lat="40.4126361371479" lon="9.76855240115717"><ele>22.8</ele><time>2026-04-30T07:20:50.838Z</time></trkpt><trkpt lat="40.41255885987794" lon="9.768681039663228"><ele>22.400000000000002</ele><time>2026-04-30T07:20:52.837Z</time></trkpt><trkpt lat="40.41252079815893" lon="9.768777162623913"><ele>22.0</ele><time>2026-04-30T07:20:53.837Z</time></trkpt><trkpt lat="40.412487607840056" lon="9.768864020481738"><ele>22.0</ele><time>2026-04-30T07:20:54.837Z</time></trkpt><trkpt lat="40.41245684955543" lon="9.768942366531823"><ele>22.0</ele><time>2026-04-30T07:20:55.837Z</time></trkpt><trkpt lat="40.412408291287996" lon="9.769066051751466"><ele>22.0</ele><time>2026-04-30T07:20:57.837Z</time></trkpt><trkpt lat="40.41236850509832" lon="9.76916739324134"><ele>22.0</ele><time>2026-04-30T07:20:59.837Z</time></trkpt><trkpt lat="40.412337485066196" lon="9.769244209708248"><ele>22.0</ele><time>2026-04-30T07:21:01.837Z</time></trkpt><trkpt lat="40.41230756218466" lon="9.769318045596853"><ele>22.0</ele><time>2026-04-30T07:21:03.837Z</time></trkpt><trkpt lat="40.41228604149293" lon="9.769414915913597"><ele>21.5</ele><time>2026-04-30T07:21:05.837Z</time></trkpt><trkpt lat="40.41223250575843" lon="9.769536048293931"><ele>21.0</ele><time>2026-04-30T07:21:07.837Z</time></trkpt><trkpt lat="40.41220295736625" lon="9.769613193585176"><ele>20.5</ele><time>2026-04-30T07:21:08.837Z</time></trkpt><trkpt lat="40.41217300027358" lon="9.76969421464376"><ele>20.0</ele><time>2026-04-30T07:21:09.837Z</time></trkpt><trkpt lat="40.41214161087508" lon="9.76978433411353"><ele>19.5</ele><time>2026-04-30T07:21:10.837Z</time></trkpt><trkpt lat="40.41209730763965" lon="9.769869754627981"><ele>19.0</ele><time>2026-04-30T07:21:11.837Z</time></trkpt><trkpt lat="40.41206230404205" lon="9.769967233855313"><ele>18.333333333333332</ele><time>2026-04-30T07:21:12.837Z</time></trkpt><trkpt lat="40.41203588315006" lon="9.770061389209241"><ele>17.666666666666664</ele><time>2026-04-30T07:21:13.837Z</time></trkpt><trkpt lat="40.41201971676479" lon="9.770150851503944"><ele>17.0</ele><time>2026-04-30T07:21:14.837Z</time></trkpt><trkpt lat="40.41202204017425" lon="9.770236868180502"><ele>16.333333333333332</ele><time>2026-04-30T07:21:15.837Z</time></trkpt><trkpt lat="40.41206030972476" lon="9.770368328727756"><ele>15.666666666666666</ele><time>2026-04-30T07:21:17.837Z</time></trkpt><trkpt lat="40.412169272626464" lon="9.770406466819757"><ele>15.0</ele><time>2026-04-30T07:21:19.837Z</time></trkpt><trkpt lat="40.41230324713738" lon="9.77040670449164"><ele>14.6</ele><time>2026-04-30T07:21:21.837Z</time></trkpt><trkpt lat="40.41239073589111" lon="9.770393709697899"><ele>14.2</ele><time>2026-04-30T07:21:22.837Z</time></trkpt><trkpt lat="40.41248866612878" lon="9.77038126265938"><ele>13.8</ele><time>2026-04-30T07:21:23.837Z</time></trkpt><trkpt lat="40.41258181267039" lon="9.770382963310643"><ele>13.4</ele><time>2026-04-30T07:21:24.837Z</time></trkpt><trkpt lat="40.41268496999702" lon="9.770386823616303"><ele>13.0</ele><time>2026-04-30T07:21:25.837Z</time></trkpt><trkpt lat="40.41279498006236" lon="9.770391391348204"><ele>13.0</ele><time>2026-04-30T07:21:26.836Z</time></trkpt><trkpt lat="40.41291342108123" lon="9.770396309139203"><ele>13.0</ele><time>2026-04-30T07:21:27.836Z</time></trkpt><trkpt lat="40.4130284992349" lon="9.770401087303538"><ele>13.0</ele><time>2026-04-30T07:21:28.836Z</time></trkpt><trkpt lat="40.413148746914125" lon="9.770406080109064"><ele>13.0</ele><time>2026-04-30T07:21:29.836Z</time></trkpt><trkpt lat="40.41326405452332" lon="9.770408608867136"><ele>12.75</ele><time>2026-04-30T07:21:30.836Z</time></trkpt><trkpt lat="40.41339073997276" lon="9.77041350669676"><ele>12.5</ele><time>2026-04-30T07:21:31.836Z</time></trkpt><trkpt lat="40.41351120760441" lon="9.770420759289589"><ele>12.25</ele><time>2026-04-30T07:21:32.836Z</time></trkpt><trkpt lat="40.41364105791536" lon="9.770432805882148"><ele>12.0</ele><time>2026-04-30T07:21:33.836Z</time></trkpt><trkpt lat="40.413768710544716" lon="9.770434204642225"><ele>12.0</ele><time>2026-04-30T07:21:34.836Z</time></trkpt><trkpt lat="40.41391115684718" lon="9.770438294896534"><ele>12.0</ele><time>2026-04-30T07:21:35.836Z</time></trkpt><trkpt lat="40.414059002429475" lon="9.770446577544487"><ele>12.0</ele><time>2026-04-30T07:21:36.836Z</time></trkpt><trkpt lat="40.41419925667595" lon="9.77045012485514"><ele>12.0</ele><time>2026-04-30T07:21:37.836Z</time></trkpt><trkpt lat="40.41434919693136" lon="9.77046207284717"><ele>12.0</ele><time>2026-04-30T07:21:38.836Z</time></trkpt><trkpt lat="40.41449956010155" lon="9.770472594568453"><ele>12.0</ele><time>2026-04-30T07:21:39.836Z</time></trkpt><trkpt lat="40.41465147160816" lon="9.770483022838436"><ele>12.0</ele><time>2026-04-30T07:21:40.836Z</time></trkpt><trkpt lat="40.41479972259377" lon="9.770501813960463"><ele>12.0</ele><time>2026-04-30T07:21:41.836Z</time></trkpt><trkpt lat="40.41494624901036" lon="9.770521945290364"><ele>12.0</ele><time>2026-04-30T07:21:42.836Z</time></trkpt><trkpt lat="40.41509707230983" lon="9.770537617111456"><ele>12.0</ele><time>2026-04-30T07:21:43.836Z</time></trkpt><trkpt lat="40.415242616929845" lon="9.77056375059068"><ele>12.0</ele><time>2026-04-30T07:21:44.836Z</time></trkpt><trkpt lat="40.415393097177464" lon="9.770592811833769"><ele>12.5</ele><time>2026-04-30T07:21:45.836Z</time></trkpt><trkpt lat="40.41554028553833" lon="9.770630618247832"><ele>13.0</ele><time>2026-04-30T07:21:46.836Z</time></trkpt><trkpt lat="40.41568326288943" lon="9.770672807939686"><ele>13.5</ele><time>2026-04-30T07:21:47.836Z</time></trkpt><trkpt lat="40.41581870163108" lon="9.770722162157872"><ele>14.0</ele><time>2026-04-30T07:21:48.836Z</time></trkpt><trkpt lat="40.41595759140594" lon="9.770770189998368"><ele>14.0</ele><time>2026-04-30T07:21:49.836Z</time></trkpt><trkpt lat="40.41609546809751" lon="9.770822073917621"><ele>14.0</ele><time>2026-04-30T07:21:50.836Z</time></trkpt><trkpt lat="40.41622860400136" lon="9.77086574019994"><ele>14.0</ele><time>2026-04-30T07:21:51.836Z</time></trkpt><trkpt lat="40.41635202503591" lon="9.770904228245268"><ele>14.0</ele><time>2026-04-30T07:21:52.836Z</time></trkpt><trkpt lat="40.41645957741627" lon="9.77093260315578"><ele>13.166666666666668</ele><time>2026-04-30T07:21:53.836Z</time></trkpt><trkpt lat="40.41653442258368" lon="9.770971519957788"><ele>12.333333333333334</ele><time>2026-04-30T07:21:54.836Z</time></trkpt><trkpt lat="40.4166001484324" lon="9.77097006781722"><ele>11.5</ele><time>2026-04-30T07:21:55.836Z</time></trkpt><trkpt lat="40.41668241289017" lon="9.770895620757031"><ele>10.666666666666668</ele><time>2026-04-30T07:21:57.836Z</time></trkpt><trkpt lat="40.41669147892223" lon="9.770808389745195"><ele>9.833333333333334</ele><time>2026-04-30T07:21:58.836Z</time></trkpt><trkpt lat="40.41670743588179" lon="9.770722667494319"><ele>9.0</ele><time>2026-04-30T07:21:59.836Z</time></trkpt><trkpt lat="40.4167268075854" lon="9.770613146579821"><ele>9.0</ele><time>2026-04-30T07:22:00.836Z</time></trkpt><trkpt lat="40.41674103322728" lon="9.770486517677746"><ele>9.0</ele><time>2026-04-30T07:22:01.836Z</time></trkpt><trkpt lat="40.41676397474731" lon="9.770405631651142"><ele>9.0</ele><time>2026-04-30T07:22:02.836Z</time></trkpt><trkpt lat="40.41683047051337" lon="9.770325362748741"><ele>9.0</ele><time>2026-04-30T07:22:04.836Z</time></trkpt><trkpt lat="40.416897967978194" lon="9.770329634640106"><ele>9.0</ele><time>2026-04-30T07:22:05.836Z</time></trkpt><trkpt lat="40.416967273675624" lon="9.770371268535104"><ele>9.0</ele><time>2026-04-30T07:22:06.836Z</time></trkpt><trkpt lat="40.41705020743304" lon="9.77037120509798"><ele>9.0</ele><time>2026-04-30T07:22:07.836Z</time></trkpt><trkpt lat="40.41713058039867" lon="9.770387474928278"><ele>9.0</ele><time>2026-04-30T07:22:08.835Z</time></trkpt><trkpt lat="40.41721314112997" lon="9.77040388366257"><ele>9.0</ele><time>2026-04-30T07:22:09.835Z</time></trkpt><trkpt lat="40.4173021183939" lon="9.770429378502689"><ele>9.0</ele><time>2026-04-30T07:22:10.835Z</time></trkpt><trkpt lat="40.41739117152656" lon="9.770418364967751"><ele>9.0</ele><time>2026-04-30T07:22:11.835Z</time></trkpt><trkpt lat="40.417483173495555" lon="9.7704047458945"><ele>9.0</ele><time>2026-04-30T07:22:12.835Z</time></trkpt><trkpt lat="40.417581003234126" lon="9.770370925798876"><ele>7.833333333333333</ele><time>2026-04-30T07:22:13.835Z</time></trkpt><trkpt lat="40.41768258726731" lon="9.770338386187511"><ele>6.666666666666667</ele><time>2026-04-30T07:22:14.835Z</time></trkpt><trkpt lat="40.41777781115682" lon="9.77032015440076"><ele>5.5</ele><time>2026-04-30T07:22:15.835Z</time></trkpt><trkpt lat="40.41786799681948" lon="9.770303677600506"><ele>4.333333333333333</ele><time>2026-04-30T07:22:16.835Z</time></trkpt><trkpt lat="40.41793331977658" lon="9.77031892827284"><ele>3.1666666666666665</ele><time>2026-04-30T07:22:17.835Z</time></trkpt><trkpt lat="40.418002517834125" lon="9.770354807845278"><ele>2.0</ele><time>2026-04-30T07:22:18.835Z</time></trkpt><trkpt lat="40.418079538719994" lon="9.770390185090868"><ele>2.0</ele><time>2026-04-30T07:22:19.835Z</time></trkpt><trkpt lat="40.418137820570294" lon="9.770473671936962"><ele>2.0</ele><time>2026-04-30T07:22:20.835Z</time></trkpt><trkpt lat="40.4182215519766" lon="9.770607135571561"><ele>2.0</ele><time>2026-04-30T07:22:22.835Z</time></trkpt><trkpt lat="40.418281463519854" lon="9.770659597965624"><ele>2.0</ele><time>2026-04-30T07:22:23.835Z</time></trkpt><trkpt lat="40.41835317023151" lon="9.7707248771623"><ele>2.0</ele><time>2026-04-30T07:22:25.835Z</time></trkpt><trkpt lat="40.41844111717008" lon="9.770818884255878"><ele>2.0</ele><time>2026-04-30T07:22:27.835Z</time></trkpt><trkpt lat="40.418490279589484" lon="9.77087183743481"><ele>2.0</ele><time>2026-04-30T07:22:28.835Z</time></trkpt><trkpt lat="40.41852031239962" lon="9.770964566982324"><ele>2.0</ele><time>2026-04-30T07:22:30.835Z</time></trkpt><trkpt lat="40.41858523901372" lon="9.771033114428187"><ele>2.0</ele><time>2026-04-30T07:22:35.835Z</time></trkpt><trkpt lat="40.41838202916877" lon="9.771219619820158"><ele>1.8</ele><time>2026-04-30T07:22:39.835Z</time></trkpt><trkpt lat="40.418277614053906" lon="9.771243273331983"><ele>1.6</ele><time>2026-04-30T07:22:41.835Z</time></trkpt><trkpt lat="40.418194424818154" lon="9.771239160504203"><ele>1.4000000000000001</ele><time>2026-04-30T07:22:43.835Z</time></trkpt><trkpt lat="40.41806300163508" lon="9.771243880789287"><ele>1.2000000000000002</ele><time>2026-04-30T07:22:45.835Z</time></trkpt><trkpt lat="40.41797765176349" lon="9.771271504692125"><ele>1.0</ele><time>2026-04-30T07:22:46.835Z</time></trkpt><trkpt lat="40.41788725368447" lon="9.771301810637256"><ele>1.0</ele><time>2026-04-30T07:22:47.835Z</time></trkpt><trkpt lat="40.417789922269165" lon="9.771332975026615"><ele>1.0</ele><time>2026-04-30T07:22:48.835Z</time></trkpt><trkpt lat="40.41769103785113" lon="9.771355379421403"><ele>1.0</ele><time>2026-04-30T07:22:49.835Z</time></trkpt><trkpt lat="40.41759663851587" lon="9.771382196601017"><ele>1.0</ele><time>2026-04-30T07:22:50.834Z</time></trkpt><trkpt lat="40.41750622030767" lon="9.77140302526149"><ele>1.0</ele><time>2026-04-30T07:22:51.834Z</time></trkpt><trkpt lat="40.4174204856219" lon="9.77142482898104"><ele>1.0</ele><time>2026-04-30T07:22:52.834Z</time></trkpt><trkpt lat="40.417309904753374" lon="9.771462550352508"><ele>1.0</ele><time>2026-04-30T07:22:53.834Z</time></trkpt><trkpt lat="40.417199389560885" lon="9.77149254729033"><ele>1.0</ele><time>2026-04-30T07:22:54.834Z</time></trkpt><trkpt lat="40.41711545295097" lon="9.771514020658717"><ele>1.0</ele><time>2026-04-30T07:22:55.834Z</time></trkpt><trkpt lat="40.417052134255876" lon="9.771531724564007"><ele>1.0</ele><time>2026-04-30T07:22:56.834Z</time></trkpt><trkpt lat="40.41697693124011" lon="9.771578181996352"><ele>1.8571428571428572</ele><time>2026-04-30T07:22:58.833Z</time></trkpt><trkpt lat="40.41692347332931" lon="9.771625937678593"><ele>2.7142857142857144</ele><time>2026-04-30T07:23:00.833Z</time></trkpt><trkpt lat="40.41688637447041" lon="9.771702602993745"><ele>3.571428571428571</ele><time>2026-04-30T07:23:03.833Z</time></trkpt><trkpt lat="40.416953469518965" lon="9.771692858336202"><ele>4.428571428571429</ele><time>2026-04-30T07:23:18.833Z</time></trkpt><trkpt lat="40.416982127393595" lon="9.771601163146022"><ele>5.285714285714286</ele><time>2026-04-30T07:23:35.832Z</time></trkpt><trkpt lat="40.41692640353139" lon="9.771532091412416"><ele>6.142857142857143</ele><time>2026-04-30T07:23:38.832Z</time></trkpt><trkpt lat="40.416879777988356" lon="9.771621135470852"><ele>7.0</ele><time>2026-04-30T07:23:41.832Z</time></trkpt><trkpt lat="40.41693563872493" lon="9.771679421365759"><ele>7.000000000000001</ele><time>2026-04-30T07:23:44.832Z</time></trkpt><trkpt lat="40.4170192207406" lon="9.771700462789795"><ele>7.0</ele><time>2026-04-30T07:24:35.831Z</time></trkpt><trkpt lat="40.41708216924106" lon="9.771678695287902"><ele>7.0</ele><time>2026-04-30T07:24:43.831Z</time></trkpt><trkpt lat="40.417151638913296" lon="9.771598561340625"><ele>7.0</ele><time>2026-04-30T07:28:19.823Z</time></trkpt><trkpt lat="40.41724171827228" lon="9.771505816923247"><ele>7.000000000000001</ele><time>2026-04-30T07:28:21.823Z</time></trkpt><trkpt lat="40.41730163083688" lon="9.771458803990226"><ele>7.0</ele><time>2026-04-30T07:28:22.823Z</time></trkpt><trkpt lat="40.417357543077905" lon="9.771411094804114"><ele>5.8</ele><time>2026-04-30T07:28:23.823Z</time></trkpt><trkpt lat="40.41749056991166" lon="9.77133121348483"><ele>4.6</ele><time>2026-04-30T07:28:25.823Z</time></trkpt><trkpt lat="40.417573382959446" lon="9.771309539263479"><ele>3.4</ele><time>2026-04-30T07:28:26.823Z</time></trkpt><trkpt lat="40.4176512022635" lon="9.77127798541096"><ele>2.2</ele><time>2026-04-30T07:28:27.823Z</time></trkpt><trkpt lat="40.41772871367984" lon="9.771251192524867"><ele>1.0</ele><time>2026-04-30T07:28:28.823Z</time></trkpt><trkpt lat="40.41779920127743" lon="9.771224465001167"><ele>1.0</ele><time>2026-04-30T07:28:29.823Z</time></trkpt><trkpt lat="40.41786779579504" lon="9.771206751605554"><ele>0.9999999999999999</ele><time>2026-04-30T07:28:30.823Z</time></trkpt><trkpt lat="40.417941769505525" lon="9.771183821652427"><ele>1.0</ele><time>2026-04-30T07:28:31.823Z</time></trkpt><trkpt lat="40.41801152582659" lon="9.771158481506925"><ele>1.0</ele><time>2026-04-30T07:28:32.823Z</time></trkpt><trkpt lat="40.41808542749375" lon="9.771135692283261"><ele>0.9999999999999999</ele><time>2026-04-30T07:28:33.823Z</time></trkpt><trkpt lat="40.4181540781177" lon="9.77112132602402"><ele>1.0</ele><time>2026-04-30T07:28:34.823Z</time></trkpt><trkpt lat="40.4182273677161" lon="9.771110712586399"><ele>1.0</ele><time>2026-04-30T07:28:35.823Z</time></trkpt><trkpt lat="40.41830014772624" lon="9.771090943979322"><ele>0.8333333333333333</ele><time>2026-04-30T07:28:36.823Z</time></trkpt><trkpt lat="40.41837625873795" lon="9.771062739482403"><ele>0.6666666666666666</ele><time>2026-04-30T07:28:37.823Z</time></trkpt><trkpt lat="40.418441111053184" lon="9.771029048177596"><ele>0.5</ele><time>2026-04-30T07:28:38.823Z</time></trkpt><trkpt lat="40.418534907511294" lon="9.770984882336968"><ele>0.3333333333333333</ele><time>2026-04-30T07:28:40.823Z</time></trkpt><trkpt lat="40.41857616987436" lon="9.77106470194532"><ele>0.16666666666666666</ele><time>2026-04-30T07:28:45.823Z</time></trkpt><trkpt lat="40.41857564366725" lon="9.771164899478642"><ele>0.0</ele><time>2026-04-30T07:28:46.823Z</time></trkpt><trkpt lat="40.41862262550209" lon="9.771285125518114"><ele>0.0</ele><time>2026-04-30T07:28:47.823Z</time></trkpt><trkpt lat="40.41870534530412" lon="9.77142210156619"><ele>0.0</ele><time>2026-04-30T07:28:48.823Z</time></trkpt><trkpt lat="40.41881801476288" lon="9.77152763472596"><ele>0.0</ele><time>2026-04-30T07:28:49.823Z</time></trkpt><trkpt lat="40.418972215384386" lon="9.771498230666852"><ele>0.0</ele><time>2026-04-30T07:28:50.823Z</time></trkpt><trkpt lat="40.419064211194865" lon="9.77159803595269"><ele>1.0</ele><time>2026-04-30T07:28:51.823Z</time></trkpt><trkpt lat="40.41916165095533" lon="9.771683528504878"><ele>2.0</ele><time>2026-04-30T07:28:52.823Z</time></trkpt><trkpt lat="40.41926466116019" lon="9.771766432376191"><ele>3.0</ele><time>2026-04-30T07:28:53.823Z</time></trkpt><trkpt lat="40.41936515340333" lon="9.77184156919787"><ele>4.0</ele><time>2026-04-30T07:28:54.823Z</time></trkpt><trkpt lat="40.41946459015827" lon="9.771915621062764"><ele>4.0</ele><time>2026-04-30T07:28:55.823Z</time></trkpt><trkpt lat="40.41956779052864" lon="9.772009153402646"><ele>4.0</ele><time>2026-04-30T07:28:56.823Z</time></trkpt><trkpt lat="40.41968337015699" lon="9.772075237254809"><ele>4.0</ele><time>2026-04-30T07:28:57.823Z</time></trkpt><trkpt lat="40.41980538195611" lon="9.772133607978429"><ele>4.0</ele><time>2026-04-30T07:28:58.823Z</time></trkpt><trkpt lat="40.41993183327059" lon="9.772179760920976"><ele>5.5</ele><time>2026-04-30T07:28:59.823Z</time></trkpt><trkpt lat="40.420098497612955" lon="9.772199741701245"><ele>7.0</ele><time>2026-04-30T07:29:00.823Z</time></trkpt><trkpt lat="40.42022749872097" lon="9.772227830489614"><ele>8.5</ele><time>2026-04-30T07:29:01.822Z</time></trkpt><trkpt lat="40.42035987367797" lon="9.772259105049596"><ele>10.0</ele><time>2026-04-30T07:29:02.822Z</time></trkpt><trkpt lat="40.42049116281176" lon="9.77228506697364"><ele>10.5</ele><time>2026-04-30T07:29:03.822Z</time></trkpt><trkpt lat="40.420621250412836" lon="9.772323642479689"><ele>11.0</ele><time>2026-04-30T07:29:04.822Z</time></trkpt><trkpt lat="40.42074452605443" lon="9.772387783058651"><ele>11.5</ele><time>2026-04-30T07:29:05.822Z</time></trkpt><trkpt lat="40.42086402222316" lon="9.772446745437453"><ele>12.0</ele><time>2026-04-30T07:29:06.822Z</time></trkpt><trkpt lat="40.420979987558496" lon="9.772506840315808"><ele>12.0</ele><time>2026-04-30T07:29:07.822Z</time></trkpt><trkpt lat="40.421077585459564" lon="9.772555453105726"><ele>12.0</ele><time>2026-04-30T07:29:08.822Z</time></trkpt><trkpt lat="40.42116250113907" lon="9.772586919072905"><ele>12.0</ele><time>2026-04-30T07:29:09.822Z</time></trkpt><trkpt lat="40.42124351387174" lon="9.772575004576211"><ele>12.0</ele><time>2026-04-30T07:29:10.822Z</time></trkpt><trkpt lat="40.42133243891604" lon="9.772533433092024"><ele>12.0</ele><time>2026-04-30T07:29:11.822Z</time></trkpt><trkpt lat="40.42143215035288" lon="9.772489812609198"><ele>11.75</ele><time>2026-04-30T07:29:12.822Z</time></trkpt><trkpt lat="40.42154013894338" lon="9.772436301794407"><ele>11.5</ele><time>2026-04-30T07:29:13.822Z</time></trkpt><trkpt lat="40.42165083232623" lon="9.772357742925099"><ele>11.25</ele><time>2026-04-30T07:29:14.822Z</time></trkpt><trkpt lat="40.421770496591826" lon="9.77227371946318"><ele>11.0</ele><time>2026-04-30T07:29:15.821Z</time></trkpt><trkpt lat="40.421893427742496" lon="9.772187900383607"><ele>11.0</ele><time>2026-04-30T07:29:16.821Z</time></trkpt><trkpt lat="40.42202132719808" lon="9.77210127103914"><ele>11.0</ele><time>2026-04-30T07:29:17.821Z</time></trkpt><trkpt lat="40.422143303239764" lon="9.772016417996221"><ele>11.0</ele><time>2026-04-30T07:29:18.821Z</time></trkpt><trkpt lat="40.42226395612396" lon="9.771935344686986"><ele>11.0</ele><time>2026-04-30T07:29:19.821Z</time></trkpt><trkpt lat="40.42238883758426" lon="9.771853217239208"><ele>11.25</ele><time>2026-04-30T07:29:20.821Z</time></trkpt><trkpt lat="40.42251369627266" lon="9.771768679080257"><ele>11.5</ele><time>2026-04-30T07:29:21.821Z</time></trkpt><trkpt lat="40.42265025311334" lon="9.771669272847596"><ele>11.75</ele><time>2026-04-30T07:29:22.821Z</time></trkpt><trkpt lat="40.42277962208357" lon="9.77160691775127"><ele>12.0</ele><time>2026-04-30T07:29:24Z</time></trkpt><trkpt lat="40.42292260866018" lon="9.771567872210728"><ele>11.0</ele><time>2026-04-30T07:29:24.999Z</time></trkpt><trkpt lat="40.423060066725135" lon="9.771535459224996"><ele>10.0</ele><time>2026-04-30T07:29:25.999Z</time></trkpt><trkpt lat="40.42319673729881" lon="9.771507184865916"><ele>9.0</ele><time>2026-04-30T07:29:27Z</time></trkpt><trkpt lat="40.42333831962296" lon="9.771487783204021"><ele>8.0</ele><time>2026-04-30T07:29:28Z</time></trkpt><trkpt lat="40.42347301915354" lon="9.771456232585358"><ele>8.0</ele><time>2026-04-30T07:29:29Z</time></trkpt><trkpt lat="40.423611742456735" lon="9.77142876772935"><ele>8.0</ele><time>2026-04-30T07:29:30Z</time></trkpt><trkpt lat="40.42374867101806" lon="9.77138645120664"><ele>8.0</ele><time>2026-04-30T07:29:31Z</time></trkpt><trkpt lat="40.42388642647027" lon="9.77134007215941"><ele>8.0</ele><time>2026-04-30T07:29:32Z</time></trkpt><trkpt lat="40.42401365898005" lon="9.7712848237868"><ele>8.0</ele><time>2026-04-30T07:29:33Z</time></trkpt><trkpt lat="40.42415038021198" lon="9.771233714905966"><ele>8.0</ele><time>2026-04-30T07:29:34Z</time></trkpt><trkpt lat="40.424279909726145" lon="9.771169502032421"><ele>8.0</ele><time>2026-04-30T07:29:35Z</time></trkpt><trkpt lat="40.42440817422635" lon="9.77111084495889"><ele>8.0</ele><time>2026-04-30T07:29:36Z</time></trkpt><trkpt lat="40.42453574038077" lon="9.771048380728923"><ele>10.5</ele><time>2026-04-30T07:29:37Z</time></trkpt><trkpt lat="40.42466128700654" lon="9.77097224481551"><ele>13.0</ele><time>2026-04-30T07:29:38Z</time></trkpt><trkpt lat="40.42478655224715" lon="9.770906079899332"><ele>15.5</ele><time>2026-04-30T07:29:39Z</time></trkpt><trkpt lat="40.42490924511313" lon="9.770842738067184"><ele>18.0</ele><time>2026-04-30T07:29:40Z</time></trkpt><trkpt lat="40.4250207617055" lon="9.77078366016087"><ele>18.0</ele><time>2026-04-30T07:29:41Z</time></trkpt><trkpt lat="40.425124753270985" lon="9.770736690610299"><ele>18.0</ele><time>2026-04-30T07:29:42Z</time></trkpt><trkpt lat="40.42520723765505" lon="9.770673849503849"><ele>18.0</ele><time>2026-04-30T07:29:43Z</time></trkpt><trkpt lat="40.42530242965564" lon="9.770628987303574"><ele>18.0</ele><time>2026-04-30T07:29:44Z</time></trkpt><trkpt lat="40.425402826350926" lon="9.770577093582817"><ele>18.0</ele><time>2026-04-30T07:29:45Z</time></trkpt><trkpt lat="40.4255120106662" lon="9.770507583896029"><ele>18.75</ele><time>2026-04-30T07:29:46Z</time></trkpt><trkpt lat="40.425617219995594" lon="9.770440045374693"><ele>19.5</ele><time>2026-04-30T07:29:47Z</time></trkpt><trkpt lat="40.425724578930655" lon="9.770376446733176"><ele>20.25</ele><time>2026-04-30T07:29:48Z</time></trkpt><trkpt lat="40.425831087786314" lon="9.770298449014044"><ele>21.0</ele><time>2026-04-30T07:29:49Z</time></trkpt><trkpt lat="40.42593751280224" lon="9.770201531276713"><ele>24.0</ele><time>2026-04-30T07:29:50Z</time></trkpt><trkpt lat="40.426035430297254" lon="9.770097669137119"><ele>27.0</ele><time>2026-04-30T07:29:51Z</time></trkpt><trkpt lat="40.426128265577525" lon="9.769981110301556"><ele>30.0</ele><time>2026-04-30T07:29:52Z</time></trkpt><trkpt lat="40.426229872151325" lon="9.769872607173367"><ele>33.0</ele><time>2026-04-30T07:29:53.001Z</time></trkpt><trkpt lat="40.42629811381151" lon="9.769750175932671"><ele>33.4</ele><time>2026-04-30T07:29:54.001Z</time></trkpt><trkpt lat="40.426349373682534" lon="9.769626381173692"><ele>33.8</ele><time>2026-04-30T07:29:55.001Z</time></trkpt><trkpt lat="40.42638151423543" lon="9.769499918889188"><ele>34.2</ele><time>2026-04-30T07:29:56.001Z</time></trkpt><trkpt lat="40.42639556236296" lon="9.769365891572317"><ele>34.6</ele><time>2026-04-30T07:29:57.001Z</time></trkpt><trkpt lat="40.42638871875897" lon="9.769234258781747"><ele>35.0</ele><time>2026-04-30T07:29:58.001Z</time></trkpt><trkpt lat="40.42635774158471" lon="9.769094522866594"><ele>35.0</ele><time>2026-04-30T07:29:59.001Z</time></trkpt><trkpt lat="40.42632213979724" lon="9.76893142459199"><ele>35.0</ele><time>2026-04-30T07:30:00.001Z</time></trkpt><trkpt lat="40.426299600603485" lon="9.768772390850243"><ele>35.0</ele><time>2026-04-30T07:30:01.001Z</time></trkpt><trkpt lat="40.426288001356156" lon="9.768629858092497"><ele>35.0</ele><time>2026-04-30T07:30:02.001Z</time></trkpt><trkpt lat="40.426298394425814" lon="9.768514221995261"><ele>35.666666666666664</ele><time>2026-04-30T07:30:03.001Z</time></trkpt><trkpt lat="40.42632924892149" lon="9.768422346771986"><ele>36.33333333333333</ele><time>2026-04-30T07:30:04.001Z</time></trkpt><trkpt lat="40.42638271105103" lon="9.768335201023767"><ele>37.0</ele><time>2026-04-30T07:30:05.001Z</time></trkpt><trkpt lat="40.42641648308087" lon="9.768258345462128"><ele>37.666666666666664</ele><time>2026-04-30T07:30:06.001Z</time></trkpt><trkpt lat="40.42642284072582" lon="9.768155523671938"><ele>38.333333333333336</ele><time>2026-04-30T07:30:08.001Z</time></trkpt><trkpt lat="40.42640187912478" lon="9.768038364628953"><ele>39.0</ele><time>2026-04-30T07:30:13.001Z</time></trkpt><trkpt lat="40.42632203252414" lon="9.767968025029301"><ele>39.6</ele><time>2026-04-30T07:30:14.001Z</time></trkpt><trkpt lat="40.426241564028" lon="9.767898408472778"><ele>40.2</ele><time>2026-04-30T07:30:15.001Z</time></trkpt><trkpt lat="40.42615648102187" lon="9.767814616752894"><ele>40.800000000000004</ele><time>2026-04-30T07:30:16.001Z</time></trkpt><trkpt lat="40.426075514265904" lon="9.767728284318084"><ele>41.4</ele><time>2026-04-30T07:30:17.001Z</time></trkpt><trkpt lat="40.425999689211295" lon="9.767630045975787"><ele>42.0</ele><time>2026-04-30T07:30:18.001Z</time></trkpt><trkpt lat="40.42592081506421" lon="9.767508349162897"><ele>42.25</ele><time>2026-04-30T07:30:19.001Z</time></trkpt><trkpt lat="40.42583508554006" lon="9.767379162842644"><ele>42.5</ele><time>2026-04-30T07:30:20.001Z</time></trkpt><trkpt lat="40.425749148475575" lon="9.767253154222036"><ele>42.75</ele><time>2026-04-30T07:30:21.001Z</time></trkpt><trkpt lat="40.42565980428024" lon="9.76711914532471"><ele>43.0</ele><time>2026-04-30T07:30:22.001Z</time></trkpt><trkpt lat="40.42556699261616" lon="9.766976428803467"><ele>43.0</ele><time>2026-04-30T07:30:23.001Z</time></trkpt><trkpt lat="40.42547127606797" lon="9.766830778895866"><ele>43.0</ele><time>2026-04-30T07:30:24.001Z</time></trkpt><trkpt lat="40.42537724205727" lon="9.766687220733946"><ele>43.0</ele><time>2026-04-30T07:30:25.001Z</time></trkpt><trkpt lat="40.42528235060057" lon="9.766539048061839"><ele>43.0</ele><time>2026-04-30T07:30:26.001Z</time></trkpt><trkpt lat="40.42518635522452" lon="9.766391916791083"><ele>43.0</ele><time>2026-04-30T07:30:27.001Z</time></trkpt><trkpt lat="40.425090753278575" lon="9.766243822667455"><ele>43.0</ele><time>2026-04-30T07:30:28.001Z</time></trkpt><trkpt lat="40.42499180060824" lon="9.766093937952869"><ele>43.0</ele><time>2026-04-30T07:30:29.001Z</time></trkpt><trkpt lat="40.42489291113136" lon="9.765938674480411"><ele>43.0</ele><time>2026-04-30T07:30:30.001Z</time></trkpt><trkpt lat="40.424792210428016" lon="9.765786386590745"><ele>43.0</ele><time>2026-04-30T07:30:31.001Z</time></trkpt><trkpt lat="40.42469230301046" lon="9.765634836770557"><ele>43.0</ele><time>2026-04-30T07:30:32.001Z</time></trkpt><trkpt lat="40.42459322729751" lon="9.76548282032465"><ele>43.66666666666667</ele><time>2026-04-30T07:30:33.001Z</time></trkpt><trkpt lat="40.42449359662857" lon="9.765327707787296"><ele>44.333333333333336</ele><time>2026-04-30T07:30:34.001Z</time></trkpt><trkpt lat="40.4243929965264" lon="9.765167927116625"><ele>45.0</ele><time>2026-04-30T07:30:35.001Z</time></trkpt><trkpt lat="40.424292171310114" lon="9.765011793886039"><ele>45.0</ele><time>2026-04-30T07:30:36.001Z</time></trkpt><trkpt lat="40.424187583382455" lon="9.764857588362792"><ele>45.0</ele><time>2026-04-30T07:30:37.001Z</time></trkpt><trkpt lat="40.424083115661674" lon="9.764696886753818"><ele>45.0</ele><time>2026-04-30T07:30:38.001Z</time></trkpt><trkpt lat="40.42397085164898" lon="9.764527658204049"><ele>45.0</ele><time>2026-04-30T07:30:39.001Z</time></trkpt><trkpt lat="40.42385993485692" lon="9.764363417974128"><ele>45.0</ele><time>2026-04-30T07:30:40.001Z</time></trkpt><trkpt lat="40.42374629434709" lon="9.764193720420398"><ele>45.0</ele><time>2026-04-30T07:30:41.001Z</time></trkpt><trkpt lat="40.42363363604689" lon="9.764022062930685"><ele>46.0</ele><time>2026-04-30T07:30:42.001Z</time></trkpt><trkpt lat="40.42351970500299" lon="9.763848204879135"><ele>47.0</ele><time>2026-04-30T07:30:43.001Z</time></trkpt><trkpt lat="40.423405949237456" lon="9.763677202685527"><ele>48.0</ele><time>2026-04-30T07:30:44.001Z</time></trkpt><trkpt lat="40.42329277650132" lon="9.763508953712725"><ele>48.0</ele><time>2026-04-30T07:30:45.001Z</time></trkpt><trkpt lat="40.42318197050949" lon="9.763336136185371"><ele>48.0</ele><time>2026-04-30T07:30:46.001Z</time></trkpt><trkpt lat="40.4230672014458" lon="9.763164760089284"><ele>48.0</ele><time>2026-04-30T07:30:47.001Z</time></trkpt><trkpt lat="40.42295784735868" lon="9.762996240813619"><ele>48.0</ele><time>2026-04-30T07:30:48.001Z</time></trkpt><trkpt lat="40.42285411067523" lon="9.762834839334849"><ele>48.0</ele><time>2026-04-30T07:30:49.001Z</time></trkpt><trkpt lat="40.42276507183092" lon="9.762682901904725"><ele>48.0</ele><time>2026-04-30T07:30:50.001Z</time></trkpt><trkpt lat="40.42268609666107" lon="9.762524297475226"><ele>48.66666666666667</ele><time>2026-04-30T07:30:51.001Z</time></trkpt><trkpt lat="40.42261464261846" lon="9.762353168762775"><ele>49.333333333333336</ele><time>2026-04-30T07:30:52.001Z</time></trkpt><trkpt lat="40.42255111323067" lon="9.762166821572306"><ele>50.0</ele><time>2026-04-30T07:30:53.001Z</time></trkpt><trkpt lat="40.42250889667228" lon="9.761973182174708"><ele>50.0</ele><time>2026-04-30T07:30:54.001Z</time></trkpt><trkpt lat="40.42248177183355" lon="9.761771752043202"><ele>50.0</ele><time>2026-04-30T07:30:55.001Z</time></trkpt><trkpt lat="40.42246866466695" lon="9.761553956325649"><ele>50.0</ele><time>2026-04-30T07:30:56.001Z</time></trkpt><trkpt lat="40.422461560939055" lon="9.761329067218735"><ele>50.0</ele><time>2026-04-30T07:30:57.001Z</time></trkpt><trkpt lat="40.42246073503693" lon="9.761085579532109"><ele>50.0</ele><time>2026-04-30T07:30:58.001Z</time></trkpt><trkpt lat="40.422459119854295" lon="9.760839476733523"><ele>50.0</ele><time>2026-04-30T07:30:59.001Z</time></trkpt><trkpt lat="40.422450138399775" lon="9.760582738540348"><ele>49.66666666666667</ele><time>2026-04-30T07:31:00.001Z</time></trkpt><trkpt lat="40.42244412786226" lon="9.760326161991234"><ele>49.33333333333333</ele><time>2026-04-30T07:31:01.001Z</time></trkpt><trkpt lat="40.422433257115024" lon="9.76006983755342"><ele>49.0</ele><time>2026-04-30T07:31:02.001Z</time></trkpt><trkpt lat="40.42242845907859" lon="9.75980724213522"><ele>49.0</ele><time>2026-04-30T07:31:03.001Z</time></trkpt><trkpt lat="40.42242266279376" lon="9.759542505532668"><ele>49.0</ele><time>2026-04-30T07:31:04.002Z</time></trkpt><trkpt lat="40.42241499319165" lon="9.759272450587405"><ele>49.0</ele><time>2026-04-30T07:31:05.002Z</time></trkpt><trkpt lat="40.422405884214655" lon="9.759004429206744"><ele>49.0</ele><time>2026-04-30T07:31:06.002Z</time></trkpt><trkpt lat="40.42240223440327" lon="9.758736233096242"><ele>49.0</ele><time>2026-04-30T07:31:07.002Z</time></trkpt><trkpt lat="40.42239439366238" lon="9.758462798140535"><ele>49.0</ele><time>2026-04-30T07:31:08.002Z</time></trkpt><trkpt lat="40.42238777613364" lon="9.758187879711155"><ele>49.0</ele><time>2026-04-30T07:31:09.002Z</time></trkpt><trkpt lat="40.42238043141832" lon="9.757910137013873"><ele>49.0</ele><time>2026-04-30T07:31:10.002Z</time></trkpt><trkpt lat="40.4223733381226" lon="9.75763598184016"><ele>49.0</ele><time>2026-04-30T07:31:11.002Z</time></trkpt><trkpt lat="40.42236475943884" lon="9.757366529269513"><ele>49.0</ele><time>2026-04-30T07:31:12.002Z</time></trkpt><trkpt lat="40.42236166928366" lon="9.757094778124745"><ele>49.0</ele><time>2026-04-30T07:31:13.002Z</time></trkpt><trkpt lat="40.42235451514602" lon="9.756828638480023"><ele>49.0</ele><time>2026-04-30T07:31:14.002Z</time></trkpt><trkpt lat="40.42234604462229" lon="9.756563543210326"><ele>49.666666666666664</ele><time>2026-04-30T07:31:15.002Z</time></trkpt><trkpt lat="40.42233716237749" lon="9.756296616732854"><ele>50.33333333333333</ele><time>2026-04-30T07:31:16.002Z</time></trkpt><trkpt lat="40.42233066369565" lon="9.756029545154531"><ele>51.0</ele><time>2026-04-30T07:31:17.002Z</time></trkpt><trkpt lat="40.42232230280649" lon="9.755762781788635"><ele>51.0</ele><time>2026-04-30T07:31:18.002Z</time></trkpt><trkpt lat="40.42231843941232" lon="9.755497444716845"><ele>51.0</ele><time>2026-04-30T07:31:19.002Z</time></trkpt><trkpt lat="40.4223106850344" lon="9.755227517554808"><ele>51.0</ele><time>2026-04-30T07:31:20.001Z</time></trkpt><trkpt lat="40.422304753294185" lon="9.754955164195078"><ele>51.66666666666667</ele><time>2026-04-30T07:31:21Z</time></trkpt><trkpt lat="40.42229837268977" lon="9.754684140665077"><ele>52.333333333333336</ele><time>2026-04-30T07:31:22Z</time></trkpt><trkpt lat="40.42229274494668" lon="9.75441644224264"><ele>53.0</ele><time>2026-04-30T07:31:23.001Z</time></trkpt><trkpt lat="40.42228915740034" lon="9.75415149958038"><ele>54.0</ele><time>2026-04-30T07:31:24.001Z</time></trkpt><trkpt lat="40.422283803131464" lon="9.753886566904944"><ele>55.0</ele><time>2026-04-30T07:31:25.001Z</time></trkpt><trkpt lat="40.42227530558346" lon="9.753629242374178"><ele>56.0</ele><time>2026-04-30T07:31:26.001Z</time></trkpt><trkpt lat="40.42226789318112" lon="9.753365237447351"><ele>56.0</ele><time>2026-04-30T07:31:27.001Z</time></trkpt><trkpt lat="40.42225843512108" lon="9.75310712649909"><ele>56.0</ele><time>2026-04-30T07:31:28.001Z</time></trkpt><trkpt lat="40.42225226405269" lon="9.752857350040738"><ele>56.0</ele><time>2026-04-30T07:31:29Z</time></trkpt><trkpt lat="40.4222426618262" lon="9.752631541528498"><ele>56.25</ele><time>2026-04-30T07:31:30Z</time></trkpt><trkpt lat="40.42223319796511" lon="9.752425669256011"><ele>56.5</ele><time>2026-04-30T07:31:31Z</time></trkpt><trkpt lat="40.42221353670882" lon="9.75226233447947"><ele>56.75</ele><time>2026-04-30T07:31:32Z</time></trkpt><trkpt lat="40.42221345450421" lon="9.75214321847783"><ele>57.0</ele><time>2026-04-30T07:31:33.001Z</time></trkpt><trkpt lat="40.422193411919444" lon="9.752028898724728"><ele>57.0</ele><time>2026-04-30T07:31:34.001Z</time></trkpt><trkpt lat="40.42217565445793" lon="9.751926715668331"><ele>57.0</ele><time>2026-04-30T07:31:35.001Z</time></trkpt><trkpt lat="40.42215991095261" lon="9.751833586247978"><ele>57.0</ele><time>2026-04-30T07:31:36.001Z</time></trkpt><trkpt lat="40.42214223339448" lon="9.751684792425264"><ele>57.0</ele><time>2026-04-30T07:31:38.001Z</time></trkpt><trkpt lat="40.422107452158954" lon="9.75154832487159"><ele>57.0</ele><time>2026-04-30T07:31:40.001Z</time></trkpt><trkpt lat="40.42207593881517" lon="9.751444254620488"><ele>53.333333333333336</ele><time>2026-04-30T07:31:42.001Z</time></trkpt><trkpt lat="40.422033957243706" lon="9.751381154813783"><ele>49.66666666666667</ele><time>2026-04-30T07:31:45.001Z</time></trkpt><trkpt lat="40.422076984273495" lon="9.751516078293598"><ele>46.0</ele><time>2026-04-30T07:31:50.001Z</time></trkpt><trkpt lat="40.42207507773677" lon="9.751892494407988"><ele>47.833333333333336</ele><time>2026-04-30T07:31:52.001Z</time></trkpt><trkpt lat="40.422155979382744" lon="9.75192152013695"><ele>49.66666666666667</ele><time>2026-04-30T07:31:54.001Z</time></trkpt><trkpt lat="40.42223947078448" lon="9.751968796592278"><ele>51.5</ele><time>2026-04-30T07:31:56.001Z</time></trkpt><trkpt lat="40.422308597254116" lon="9.751987357600308"><ele>53.333333333333336</ele><time>2026-04-30T07:31:57.001Z</time></trkpt><trkpt lat="40.422390402735495" lon="9.75200817382029"><ele>55.166666666666664</ele><time>2026-04-30T07:31:58.001Z</time></trkpt><trkpt lat="40.42247259370401" lon="9.752044206582603"><ele>57.0</ele><time>2026-04-30T07:31:59.001Z</time></trkpt><trkpt lat="40.42256521419299" lon="9.7520791750271"><ele>57.0</ele><time>2026-04-30T07:32:00.001Z</time></trkpt><trkpt lat="40.422670808924515" lon="9.752118912560025"><ele>57.0</ele><time>2026-04-30T07:32:01.001Z</time></trkpt><trkpt lat="40.42277665118967" lon="9.752157986634113"><ele>57.0</ele><time>2026-04-30T07:32:02.001Z</time></trkpt><trkpt lat="40.422896524240144" lon="9.752207748350001"><ele>57.0</ele><time>2026-04-30T07:32:03.001Z</time></trkpt><trkpt lat="40.423013576354855" lon="9.752254359709378"><ele>57.5</ele><time>2026-04-30T07:32:04.001Z</time></trkpt><trkpt lat="40.42312478940652" lon="9.75230036440128"><ele>58.0</ele><time>2026-04-30T07:32:05.001Z</time></trkpt><trkpt lat="40.42324150929646" lon="9.752345942626262"><ele>58.5</ele><time>2026-04-30T07:32:06.001Z</time></trkpt><trkpt lat="40.42335846774878" lon="9.752390306143615"><ele>59.0</ele><time>2026-04-30T07:32:07.001Z</time></trkpt><trkpt lat="40.42347820456477" lon="9.752440254642678"><ele>59.0</ele><time>2026-04-30T07:32:08.001Z</time></trkpt><trkpt lat="40.42360322260774" lon="9.752491545849772"><ele>59.0</ele><time>2026-04-30T07:32:09.001Z</time></trkpt><trkpt lat="40.42372548359307" lon="9.752543375970673"><ele>59.0</ele><time>2026-04-30T07:32:10.001Z</time></trkpt><trkpt lat="40.423847837582194" lon="9.752597486871675"><ele>59.0</ele><time>2026-04-30T07:32:11.001Z</time></trkpt><trkpt lat="40.42397055313981" lon="9.752651995612899"><ele>58.75</ele><time>2026-04-30T07:32:12.001Z</time></trkpt><trkpt lat="40.42408982493015" lon="9.752698871848033"><ele>58.5</ele><time>2026-04-30T07:32:13.001Z</time></trkpt><trkpt lat="40.42420592904854" lon="9.752744976646252"><ele>58.25</ele><time>2026-04-30T07:32:14.001Z</time></trkpt><trkpt lat="40.42432025880372" lon="9.75279171789117"><ele>58.0</ele><time>2026-04-30T07:32:15.001Z</time></trkpt><trkpt lat="40.424434098185735" lon="9.752847262024925"><ele>58.0</ele><time>2026-04-30T07:32:16.001Z</time></trkpt><trkpt lat="40.4245445512916" lon="9.75291244427944"><ele>58.0</ele><time>2026-04-30T07:32:17.001Z</time></trkpt><trkpt lat="40.424652535018936" lon="9.752986531206133"><ele>58.0</ele><time>2026-04-30T07:32:18.001Z</time></trkpt><trkpt lat="40.42476307092194" lon="9.753060609371364"><ele>58.0</ele><time>2026-04-30T07:32:19.001Z</time></trkpt><trkpt lat="40.424883558820895" lon="9.75312804556483"><ele>58.5</ele><time>2026-04-30T07:32:20.001Z</time></trkpt><trkpt lat="40.42500123031366" lon="9.75319329960701"><ele>59.0</ele><time>2026-04-30T07:32:21.001Z</time></trkpt><trkpt lat="40.42511834308513" lon="9.753260520816859"><ele>59.5</ele><time>2026-04-30T07:32:22.001Z</time></trkpt><trkpt lat="40.42522846917789" lon="9.753334668927982"><ele>60.0</ele><time>2026-04-30T07:32:23.001Z</time></trkpt><trkpt lat="40.42534448201272" lon="9.75341517099704"><ele>60.0</ele><time>2026-04-30T07:32:24.001Z</time></trkpt><trkpt lat="40.42545731248792" lon="9.753496178281356"><ele>60.0</ele><time>2026-04-30T07:32:25.001Z</time></trkpt><trkpt lat="40.42556962222573" lon="9.753579040253989"><ele>60.0</ele><time>2026-04-30T07:32:26.001Z</time></trkpt><trkpt lat="40.42568757334159" lon="9.75366052456398"><ele>60.0</ele><time>2026-04-30T07:32:27.001Z</time></trkpt><trkpt lat="40.425804362308924" lon="9.753741728606093"><ele>59.5</ele><time>2026-04-30T07:32:28.001Z</time></trkpt><trkpt lat="40.42591352862756" lon="9.753809240237299"><ele>59.0</ele><time>2026-04-30T07:32:29.001Z</time></trkpt><trkpt lat="40.42601046612678" lon="9.753895903592664"><ele>58.5</ele><time>2026-04-30T07:32:30.001Z</time></trkpt><trkpt lat="40.42611896442153" lon="9.753968973649263"><ele>58.0</ele><time>2026-04-30T07:32:31.001Z</time></trkpt><trkpt lat="40.42624427569739" lon="9.753984793975564"><ele>58.0</ele><time>2026-04-30T07:32:32.001Z</time></trkpt><trkpt lat="40.426358124689344" lon="9.754026862842966"><ele>58.0</ele><time>2026-04-30T07:32:33.001Z</time></trkpt><trkpt lat="40.42645886035936" lon="9.754065241668716"><ele>58.0</ele><time>2026-04-30T07:32:34.001Z</time></trkpt><trkpt lat="40.42655047223906" lon="9.754104820679485"><ele>58.0</ele><time>2026-04-30T07:32:35.001Z</time></trkpt><trkpt lat="40.42664761933293" lon="9.754143993027782"><ele>58.0</ele><time>2026-04-30T07:32:36.001Z</time></trkpt><trkpt lat="40.42675311152732" lon="9.754185766457722"><ele>58.0</ele><time>2026-04-30T07:32:37.001Z</time></trkpt><trkpt lat="40.426872323858944" lon="9.75417382978927"><ele>58.0</ele><time>2026-04-30T07:32:38.001Z</time></trkpt><trkpt lat="40.4269942863394" lon="9.754177778987005"><ele>58.0</ele><time>2026-04-30T07:32:39.001Z</time></trkpt><trkpt lat="40.42710052478461" lon="9.754210085213998"><ele>58.0</ele><time>2026-04-30T07:32:40.001Z</time></trkpt><trkpt lat="40.427194393214165" lon="9.754203787875994"><ele>58.0</ele><time>2026-04-30T07:32:41.001Z</time></trkpt><trkpt lat="40.42729343460464" lon="9.754240923251368"><ele>57.8</ele><time>2026-04-30T07:32:42.001Z</time></trkpt><trkpt lat="40.42737097715832" lon="9.754315196998801"><ele>57.599999999999994</ele><time>2026-04-30T07:32:43.001Z</time></trkpt><trkpt lat="40.42745611890004" lon="9.754378671069412"><ele>57.400000000000006</ele><time>2026-04-30T07:32:44.001Z</time></trkpt><trkpt lat="40.42754838960591" lon="9.754440536886086"><ele>57.2</ele><time>2026-04-30T07:32:45.001Z</time></trkpt><trkpt lat="40.4276121161823" lon="9.75452536938282"><ele>57.0</ele><time>2026-04-30T07:32:46.001Z</time></trkpt><trkpt lat="40.42765773990698" lon="9.754612626900162"><ele>57.0</ele><time>2026-04-30T07:32:47.001Z</time></trkpt><trkpt lat="40.427694095794756" lon="9.754693580875568"><ele>57.0</ele><time>2026-04-30T07:32:48.001Z</time></trkpt><trkpt lat="40.42772317393832" lon="9.754773568198647"><ele>57.0</ele><time>2026-04-30T07:32:49.001Z</time></trkpt><trkpt lat="40.427774718479775" lon="9.754919439650392"><ele>57.0</ele><time>2026-04-30T07:32:51.001Z</time></trkpt><trkpt lat="40.427855694197966" lon="9.754963422815804"><ele>57.0</ele><time>2026-04-30T07:32:52.001Z</time></trkpt><trkpt lat="40.42794526072457" lon="9.755032344336454"><ele>56.400000000000006</ele><time>2026-04-30T07:32:53.001Z</time></trkpt><trkpt lat="40.42802103471112" lon="9.755091864446495"><ele>55.800000000000004</ele><time>2026-04-30T07:32:54.001Z</time></trkpt><trkpt lat="40.428093727254854" lon="9.75515356582512"><ele>55.2</ele><time>2026-04-30T07:32:55.001Z</time></trkpt><trkpt lat="40.42817343278552" lon="9.75521695044591"><ele>54.6</ele><time>2026-04-30T07:32:56.002Z</time></trkpt><trkpt lat="40.42825852685011" lon="9.755281661713264"><ele>54.0</ele><time>2026-04-30T07:32:57.002Z</time></trkpt><trkpt lat="40.42834879396013" lon="9.755352662596392"><ele>53.800000000000004</ele><time>2026-04-30T07:32:58.002Z</time></trkpt><trkpt lat="40.428424859914976" lon="9.75544017112138"><ele>53.60000000000001</ele><time>2026-04-30T07:32:59.002Z</time></trkpt><trkpt lat="40.42852294904451" lon="9.755512834066062"><ele>53.4</ele><time>2026-04-30T07:33:00.002Z</time></trkpt><trkpt lat="40.42862104809282" lon="9.755578209669865"><ele>53.2</ele><time>2026-04-30T07:33:01.002Z</time></trkpt><trkpt lat="40.428729392746796" lon="9.755630031563399"><ele>53.0</ele><time>2026-04-30T07:33:02.002Z</time></trkpt><trkpt lat="40.42883895673406" lon="9.755678561297229"><ele>52.25</ele><time>2026-04-30T07:33:03.002Z</time></trkpt><trkpt lat="40.42895219769151" lon="9.755725754121281"><ele>51.5</ele><time>2026-04-30T07:33:04.002Z</time></trkpt><trkpt lat="40.429079434691175" lon="9.755770072510012"><ele>50.75</ele><time>2026-04-30T07:33:05.002Z</time></trkpt><trkpt lat="40.4292106123883" lon="9.755811001902789"><ele>50.0</ele><time>2026-04-30T07:33:06.002Z</time></trkpt><trkpt lat="40.42934109969166" lon="9.755842764281915"><ele>50.0</ele><time>2026-04-30T07:33:07.002Z</time></trkpt><trkpt lat="40.429470337842" lon="9.755875774875033"><ele>50.0</ele><time>2026-04-30T07:33:08.002Z</time></trkpt><trkpt lat="40.429597117516735" lon="9.755918342237376"><ele>50.0</ele><time>2026-04-30T07:33:09.002Z</time></trkpt><trkpt lat="40.429716810441555" lon="9.755966965143188"><ele>50.0</ele><time>2026-04-30T07:33:10.002Z</time></trkpt><trkpt lat="40.42983843902491" lon="9.756024168937023"><ele>50.0</ele><time>2026-04-30T07:33:11.002Z</time></trkpt><trkpt lat="40.429957304735765" lon="9.756086714869806"><ele>50.0</ele><time>2026-04-30T07:33:12.002Z</time></trkpt><trkpt lat="40.430071443950716" lon="9.756143249293853"><ele>50.0</ele><time>2026-04-30T07:33:13.002Z</time></trkpt><trkpt lat="40.4301907038524" lon="9.756204278532948"><ele>50.0</ele><time>2026-04-30T07:33:14.002Z</time></trkpt><trkpt lat="40.430290988777756" lon="9.756284098935543"><ele>50.0</ele><time>2026-04-30T07:33:15.002Z</time></trkpt><trkpt lat="40.43040620120219" lon="9.756331028544045"><ele>50.0</ele><time>2026-04-30T07:33:16.002Z</time></trkpt><trkpt lat="40.43051198722801" lon="9.756392755647708"><ele>50.0</ele><time>2026-04-30T07:33:17.002Z</time></trkpt><trkpt lat="40.43062572226497" lon="9.756457404838635"><ele>50.0</ele><time>2026-04-30T07:33:18.002Z</time></trkpt><trkpt lat="40.43073530251301" lon="9.75651255846913"><ele>50.0</ele><time>2026-04-30T07:33:19.002Z</time></trkpt><trkpt lat="40.4308478180258" lon="9.7565587656596"><ele>50.0</ele><time>2026-04-30T07:33:20.002Z</time></trkpt><trkpt lat="40.43094971599332" lon="9.756599233905012"><ele>50.0</ele><time>2026-04-30T07:33:21.002Z</time></trkpt><trkpt lat="40.431041639819405" lon="9.756653434431493"><ele>50.0</ele><time>2026-04-30T07:33:22.002Z</time></trkpt><trkpt lat="40.43114124645939" lon="9.756726703201393"><ele>50.0</ele><time>2026-04-30T07:33:23.002Z</time></trkpt><trkpt lat="40.43124723733724" lon="9.756811122112387"><ele>50.25</ele><time>2026-04-30T07:33:24.002Z</time></trkpt><trkpt lat="40.43133861150689" lon="9.756918198683836"><ele>50.5</ele><time>2026-04-30T07:33:25.002Z</time></trkpt><trkpt lat="40.43143612927539" lon="9.757004236437176"><ele>50.75</ele><time>2026-04-30T07:33:26.001Z</time></trkpt><trkpt lat="40.431532719678124" lon="9.75709968826992"><ele>51.0</ele><time>2026-04-30T07:33:27.001Z</time></trkpt><trkpt lat="40.431605221507624" lon="9.757176032027699"><ele>51.0</ele><time>2026-04-30T07:33:28.001Z</time></trkpt><trkpt lat="40.43167822558168" lon="9.757264078505731"><ele>51.0</ele><time>2026-04-30T07:33:29.001Z</time></trkpt><trkpt lat="40.431752132413756" lon="9.757346530465894"><ele>51.0</ele><time>2026-04-30T07:33:30.001Z</time></trkpt><trkpt lat="40.43181986175556" lon="9.757435696583428"><ele>51.0</ele><time>2026-04-30T07:33:31.001Z</time></trkpt><trkpt lat="40.431927453788376" lon="9.757567399998182"><ele>51.0</ele><time>2026-04-30T07:33:32.001Z</time></trkpt><trkpt lat="40.431990577847294" lon="9.757706696416136"><ele>51.0</ele><time>2026-04-30T07:33:33Z</time></trkpt><trkpt lat="40.432046800632534" lon="9.757849488765828"><ele>51.0</ele><time>2026-04-30T07:33:34Z</time></trkpt><trkpt lat="40.43210663783207" lon="9.75799304288157"><ele>51.0</ele><time>2026-04-30T07:33:35.001Z</time></trkpt><trkpt lat="40.43215718253495" lon="9.758126163948425"><ele>51.0</ele><time>2026-04-30T07:33:36Z</time></trkpt><trkpt lat="40.43221281357132" lon="9.758250218832629"><ele>51.0</ele><time>2026-04-30T07:33:37Z</time></trkpt><trkpt lat="40.43228865238364" lon="9.758383122153692"><ele>51.0</ele><time>2026-04-30T07:33:38.001Z</time></trkpt><trkpt lat="40.43238111651525" lon="9.75852289104943"><ele>51.0</ele><time>2026-04-30T07:33:39.001Z</time></trkpt><trkpt lat="40.432470375962424" lon="9.75865025123282"><ele>51.0</ele><time>2026-04-30T07:33:40.001Z</time></trkpt><trkpt lat="40.432554206589835" lon="9.758778547530701"><ele>50.599999999999994</ele><time>2026-04-30T07:33:41.001Z</time></trkpt><trkpt lat="40.43263006492469" lon="9.758908089738844"><ele>50.2</ele><time>2026-04-30T07:33:42.001Z</time></trkpt><trkpt lat="40.432695152394594" lon="9.759019755147975"><ele>49.8</ele><time>2026-04-30T07:33:43.001Z</time></trkpt><trkpt lat="40.432769087361144" lon="9.759119464484789"><ele>49.400000000000006</ele><time>2026-04-30T07:33:44.001Z</time></trkpt><trkpt lat="40.43280501023445" lon="9.759219663057008"><ele>49.0</ele><time>2026-04-30T07:33:45.001Z</time></trkpt><trkpt lat="40.432849129219235" lon="9.759319858209055"><ele>49.0</ele><time>2026-04-30T07:33:47.001Z</time></trkpt><trkpt lat="40.43289021938674" lon="9.75941800876617"><ele>49.0</ele><time>2026-04-30T07:33:50.001Z</time></trkpt><trkpt lat="40.43298388613808" lon="9.759354585281216"><ele>49.0</ele><time>2026-04-30T07:33:52.001Z</time></trkpt><trkpt lat="40.43289926080523" lon="9.759251784878883"><ele>49.0</ele><time>2026-04-30T07:34:03.001Z</time></trkpt><trkpt lat="40.432837288140696" lon="9.759151649997392"><ele>49.0</ele><time>2026-04-30T07:34:04.001Z</time></trkpt><trkpt lat="40.432760487133464" lon="9.75902038149594"><ele>49.0</ele><time>2026-04-30T07:34:05.001Z</time></trkpt><trkpt lat="40.43266575030961" lon="9.758883588872099"><ele>49.0</ele><time>2026-04-30T07:34:06.001Z</time></trkpt><trkpt lat="40.43258612489426" lon="9.758759318284923"><ele>49.0</ele><time>2026-04-30T07:34:07.001Z</time></trkpt><trkpt lat="40.43252247989463" lon="9.75860963324555"><ele>49.0</ele><time>2026-04-30T07:34:08.001Z</time></trkpt><trkpt lat="40.43243835292816" lon="9.75851371629332"><ele>49.5</ele><time>2026-04-30T07:34:09.001Z</time></trkpt><trkpt lat="40.43236563774243" lon="9.758398749810823"><ele>50.0</ele><time>2026-04-30T07:34:10.001Z</time></trkpt><trkpt lat="40.4322897638067" lon="9.758282337955952"><ele>50.5</ele><time>2026-04-30T07:34:11.001Z</time></trkpt><trkpt lat="40.4322202739822" lon="9.75816218393246"><ele>51.0</ele><time>2026-04-30T07:34:12.001Z</time></trkpt><trkpt lat="40.43216809188324" lon="9.758036571992578"><ele>51.0</ele><time>2026-04-30T07:34:13.001Z</time></trkpt><trkpt lat="40.43212789910064" lon="9.757915545900282"><ele>51.0</ele><time>2026-04-30T07:34:14.001Z</time></trkpt><trkpt lat="40.43209821946873" lon="9.757822125574219"><ele>51.0</ele><time>2026-04-30T07:34:15.001Z</time></trkpt><trkpt lat="40.43207196294247" lon="9.757728105228267"><ele>51.0</ele><time>2026-04-30T07:34:17.001Z</time></trkpt><trkpt lat="40.43218093690552" lon="9.757589863206903"><ele>51.0</ele><time>2026-04-30T07:34:20.001Z</time></trkpt><trkpt lat="40.432218706582916" lon="9.757511225610411"><ele>51.199999999999996</ele><time>2026-04-30T07:34:21.001Z</time></trkpt><trkpt lat="40.43227034240603" lon="9.757439095703763"><ele>51.4</ele><time>2026-04-30T07:34:22.001Z</time></trkpt><trkpt lat="40.4323269589227" lon="9.757354700654941"><ele>51.6</ele><time>2026-04-30T07:34:23.001Z</time></trkpt><trkpt lat="40.43238816762507" lon="9.757235343357507"><ele>51.8</ele><time>2026-04-30T07:34:24.001Z</time></trkpt><trkpt lat="40.432454083467135" lon="9.757107982715842"><ele>52.0</ele><time>2026-04-30T07:34:25.001Z</time></trkpt><trkpt lat="40.432520414716535" lon="9.756987472521443"><ele>52.2</ele><time>2026-04-30T07:34:26.001Z</time></trkpt><trkpt lat="40.43258535229833" lon="9.756867695777238"><ele>52.400000000000006</ele><time>2026-04-30T07:34:27.001Z</time></trkpt><trkpt lat="40.43264686018684" lon="9.75675181262508"><ele>52.599999999999994</ele><time>2026-04-30T07:34:28.001Z</time></trkpt><trkpt lat="40.432702581980394" lon="9.75664099157568"><ele>52.8</ele><time>2026-04-30T07:34:29.001Z</time></trkpt><trkpt lat="40.432745416495905" lon="9.756528112093395"><ele>53.0</ele><time>2026-04-30T07:34:30.001Z</time></trkpt><trkpt lat="40.43277632957775" lon="9.756406772302258"><ele>53.00000000000001</ele><time>2026-04-30T07:34:31.001Z</time></trkpt><trkpt lat="40.43279320737217" lon="9.756286627053795"><ele>53.0</ele><time>2026-04-30T07:34:32.001Z</time></trkpt><trkpt lat="40.4328139140286" lon="9.756165484912998"><ele>53.0</ele><time>2026-04-30T07:34:33.001Z</time></trkpt><trkpt lat="40.432848267019686" lon="9.756050375009472"><ele>53.0</ele><time>2026-04-30T07:34:34.001Z</time></trkpt><trkpt lat="40.43289440616427" lon="9.75596457574543"><ele>53.00000000000001</ele><time>2026-04-30T07:34:35.001Z</time></trkpt><trkpt lat="40.4329276962921" lon="9.755884846880857"><ele>53.0</ele><time>2026-04-30T07:34:36.001Z</time></trkpt><trkpt lat="40.43294684935891" lon="9.755785233597953"><ele>53.25</ele><time>2026-04-30T07:34:37.001Z</time></trkpt><trkpt lat="40.43299868319758" lon="9.755497619177696"><ele>53.5</ele><time>2026-04-30T07:34:42.001Z</time></trkpt><trkpt lat="40.432933791044654" lon="9.755458253229413"><ele>53.75</ele><time>2026-04-30T07:34:43.001Z</time></trkpt><trkpt lat="40.43284084765199" lon="9.7553585226013"><ele>54.0</ele><time>2026-04-30T07:34:44.001Z</time></trkpt><trkpt lat="40.43268537758622" lon="9.755243496072426"><ele>54.0</ele><time>2026-04-30T07:34:45.001Z</time></trkpt><trkpt lat="40.43255815511188" lon="9.755151145611054"><ele>54.00000000000001</ele><time>2026-04-30T07:34:47.001Z</time></trkpt><trkpt lat="40.43250083405835" lon="9.755103304420688"><ele>54.00000000000001</ele><time>2026-04-30T07:34:48.001Z</time></trkpt><trkpt lat="40.43245944238895" lon="9.754999070698856"><ele>54.0</ele><time>2026-04-30T07:34:50.001Z</time></trkpt><trkpt lat="40.43252636969719" lon="9.754917125178357"><ele>54.0</ele><time>2026-04-30T07:34:52.001Z</time></trkpt><trkpt lat="40.432569888748795" lon="9.754851141343694"><ele>54.0</ele><time>2026-04-30T07:34:53.001Z</time></trkpt><trkpt lat="40.43261146221285" lon="9.75475014301823"><ele>54.00000000000001</ele><time>2026-04-30T07:34:54.001Z</time></trkpt><trkpt lat="40.432681867200884" lon="9.754640132288216"><ele>54.00000000000001</ele><time>2026-04-30T07:34:55.001Z</time></trkpt><trkpt lat="40.43275130629993" lon="9.754528843592961"><ele>54.0</ele><time>2026-04-30T07:34:56.001Z</time></trkpt><trkpt lat="40.4328187508893" lon="9.7544122470034"><ele>54.0</ele><time>2026-04-30T07:34:57.001Z</time></trkpt><trkpt lat="40.43288311143272" lon="9.754300082857634"><ele>54.333333333333336</ele><time>2026-04-30T07:34:58.001Z</time></trkpt><trkpt lat="40.43293806620338" lon="9.754186471767397"><ele>54.66666666666667</ele><time>2026-04-30T07:34:59.001Z</time></trkpt><trkpt lat="40.43298900883546" lon="9.754087734551312"><ele>55.0</ele><time>2026-04-30T07:35:00.001Z</time></trkpt><trkpt lat="40.433061742176115" lon="9.754030347671703"><ele>55.333333333333336</ele><time>2026-04-30T07:35:01.001Z</time></trkpt><trkpt lat="40.433136451224094" lon="9.753993705608908"><ele>55.66666666666667</ele><time>2026-04-30T07:35:02.001Z</time></trkpt><trkpt lat="40.43321224632716" lon="9.75394284946375"><ele>56.0</ele><time>2026-04-30T07:35:03.001Z</time></trkpt><trkpt lat="40.43329372072123" lon="9.753879888641928"><ele>56.0</ele><time>2026-04-30T07:35:04.001Z</time></trkpt><trkpt lat="40.43335615379866" lon="9.753785716308412"><ele>55.99999999999999</ele><time>2026-04-30T07:35:05.002Z</time></trkpt><trkpt lat="40.43342999716853" lon="9.753700698050164"><ele>55.99999999999999</ele><time>2026-04-30T07:35:06.002Z</time></trkpt><trkpt lat="40.43350003634009" lon="9.753604954900995"><ele>56.0</ele><time>2026-04-30T07:35:07.002Z</time></trkpt><trkpt lat="40.433580862770306" lon="9.75349999613819"><ele>56.0</ele><time>2026-04-30T07:35:08.002Z</time></trkpt><trkpt lat="40.433648991900725" lon="9.753413528891341"><ele>56.14285714285714</ele><time>2026-04-30T07:35:09.002Z</time></trkpt><trkpt lat="40.43372221382643" lon="9.753347465825696"><ele>56.285714285714285</ele><time>2026-04-30T07:35:10.002Z</time></trkpt><trkpt lat="40.433777469509145" lon="9.753281815983794"><ele>56.42857142857143</ele><time>2026-04-30T07:35:11.002Z</time></trkpt><trkpt lat="40.43383034468213" lon="9.753220243089885"><ele>56.57142857142857</ele><time>2026-04-30T07:35:12.002Z</time></trkpt><trkpt lat="40.433881000176534" lon="9.753161254804738"><ele>56.71428571428571</ele><time>2026-04-30T07:35:13.002Z</time></trkpt><trkpt lat="40.433915132921875" lon="9.753084575027852"><ele>56.857142857142854</ele><time>2026-04-30T07:35:14.002Z</time></trkpt><trkpt lat="40.433956875137596" lon="9.75301358676845"><ele>57.0</ele><time>2026-04-30T07:35:15.002Z</time></trkpt><trkpt lat="40.433976408241676" lon="9.752925836611116"><ele>54.166666666666664</ele><time>2026-04-30T07:35:16.002Z</time></trkpt><trkpt lat="40.43398168636355" lon="9.752837283187317"><ele>51.333333333333336</ele><time>2026-04-30T07:35:17.002Z</time></trkpt><trkpt lat="40.43395995229788" lon="9.752736232812065"><ele>48.5</ele><time>2026-04-30T07:35:18.002Z</time></trkpt><trkpt lat="40.433953961435456" lon="9.75262120816028"><ele>45.66666666666667</ele><time>2026-04-30T07:35:19.002Z</time></trkpt><trkpt lat="40.433960856564205" lon="9.752509691716975"><ele>42.833333333333336</ele><time>2026-04-30T07:35:20.002Z</time></trkpt><trkpt lat="40.4339521546201" lon="9.752393734727743"><ele>40.0</ele><time>2026-04-30T07:35:21.002Z</time></trkpt><trkpt lat="40.433927424188354" lon="9.752276253465428"><ele>39.5</ele><time>2026-04-30T07:35:22.002Z</time></trkpt><trkpt lat="40.43391695161511" lon="9.752166780454056"><ele>39.0</ele><time>2026-04-30T07:35:23.002Z</time></trkpt><trkpt lat="40.4339067902341" lon="9.752060565972506"><ele>38.5</ele><time>2026-04-30T07:35:24.002Z</time></trkpt><trkpt lat="40.43389625132756" lon="9.751955612458108"><ele>38.0</ele><time>2026-04-30T07:35:25.002Z</time></trkpt><trkpt lat="40.43389427399144" lon="9.751857630848969"><ele>37.5</ele><time>2026-04-30T07:35:26.002Z</time></trkpt><trkpt lat="40.43393432420618" lon="9.751702245736427"><ele>37.0</ele><time>2026-04-30T07:35:28.002Z</time></trkpt><trkpt lat="40.43397458667407" lon="9.751603339633364"><ele>36.333333333333336</ele><time>2026-04-30T07:35:29.002Z</time></trkpt><trkpt lat="40.43402058780811" lon="9.751488828335223"><ele>35.66666666666667</ele><time>2026-04-30T07:35:30.002Z</time></trkpt><trkpt lat="40.43408652895085" lon="9.75140776876687"><ele>35.0</ele><time>2026-04-30T07:35:31.002Z</time></trkpt><trkpt lat="40.434124951509354" lon="9.751331956312947"><ele>34.333333333333336</ele><time>2026-04-30T07:35:32.001Z</time></trkpt><trkpt lat="40.43418934030324" lon="9.75130086281658"><ele>33.666666666666664</ele><time>2026-04-30T07:35:33Z</time></trkpt><trkpt lat="40.43425692366439" lon="9.751301902319996"><ele>33.0</ele><time>2026-04-30T07:35:34Z</time></trkpt><trkpt lat="40.434319418013494" lon="9.75131943620467"><ele>33.0</ele><time>2026-04-30T07:35:35.001Z</time></trkpt><trkpt lat="40.43438125391631" lon="9.751377793763105"><ele>33.0</ele><time>2026-04-30T07:35:36.001Z</time></trkpt><trkpt lat="40.43445531919975" lon="9.751436226245133"><ele>33.0</ele><time>2026-04-30T07:35:37.001Z</time></trkpt><trkpt lat="40.43452706362195" lon="9.751497449772607"><ele>33.0</ele><time>2026-04-30T07:35:38.001Z</time></trkpt><trkpt lat="40.43459341587663" lon="9.751564074728643"><ele>33.0</ele><time>2026-04-30T07:35:39.001Z</time></trkpt><trkpt lat="40.43468417711748" lon="9.751602865876409"><ele>33.0</ele><time>2026-04-30T07:35:40.001Z</time></trkpt><trkpt lat="40.43475971358351" lon="9.751642499181333"><ele>33.0</ele><time>2026-04-30T07:35:41.001Z</time></trkpt><trkpt lat="40.43485713325704" lon="9.75167423830733"><ele>33.0</ele><time>2026-04-30T07:35:42.001Z</time></trkpt><trkpt lat="40.43495521489729" lon="9.751713094192581"><ele>33.0</ele><time>2026-04-30T07:35:43.001Z</time></trkpt><trkpt lat="40.43503955691651" lon="9.751779627239925"><ele>33.0</ele><time>2026-04-30T07:35:44Z</time></trkpt><trkpt lat="40.43512008509897" lon="9.75183302595502"><ele>33.0</ele><time>2026-04-30T07:35:45Z</time></trkpt><trkpt lat="40.43518300817258" lon="9.751877500053538"><ele>33.0</ele><time>2026-04-30T07:35:46Z</time></trkpt><trkpt lat="40.43524577909995" lon="9.751920999808961"><ele>33.0</ele><time>2026-04-30T07:35:47Z</time></trkpt><trkpt lat="40.43532403442333" lon="9.751952205645205"><ele>33.0</ele><time>2026-04-30T07:35:48Z</time></trkpt><trkpt lat="40.43537980137884" lon="9.752003028512185"><ele>33.0</ele><time>2026-04-30T07:35:49Z</time></trkpt><trkpt lat="40.43546625010222" lon="9.751944242529833"><ele>33.0</ele><time>2026-04-30T07:35:51Z</time></trkpt><trkpt lat="40.43547995317877" lon="9.751844812597398"><ele>33.0</ele><time>2026-04-30T07:35:53Z</time></trkpt><trkpt lat="40.43548663816391" lon="9.751757758204967"><ele>34.5</ele><time>2026-04-30T07:35:54Z</time></trkpt><trkpt lat="40.43549951681264" lon="9.75165732214229"><ele>36.0</ele><time>2026-04-30T07:35:55Z</time></trkpt><trkpt lat="40.435515419150164" lon="9.751552301635948"><ele>37.5</ele><time>2026-04-30T07:35:56Z</time></trkpt><trkpt lat="40.43555749901205" lon="9.751388051275345"><ele>39.0</ele><time>2026-04-30T07:35:58Z</time></trkpt><trkpt lat="40.435587917979575" lon="9.751288643616643"><ele>40.5</ele><time>2026-04-30T07:35:59Z</time></trkpt><trkpt lat="40.43561987693902" lon="9.75120924494532"><ele>42.0</ele><time>2026-04-30T07:36:00Z</time></trkpt><trkpt lat="40.43565757160057" lon="9.751114428997269"><ele>41.333333333333336</ele><time>2026-04-30T07:36:01Z</time></trkpt><trkpt lat="40.43568574444636" lon="9.751007839859858"><ele>40.666666666666664</ele><time>2026-04-30T07:36:02Z</time></trkpt><trkpt lat="40.435724157093794" lon="9.750918840026463"><ele>40.0</ele><time>2026-04-30T07:36:03Z</time></trkpt><trkpt lat="40.43575784811642" lon="9.750826176227559"><ele>39.33333333333333</ele><time>2026-04-30T07:36:04Z</time></trkpt><trkpt lat="40.43579377705423" lon="9.750729048196375"><ele>38.666666666666664</ele><time>2026-04-30T07:36:05Z</time></trkpt><trkpt lat="40.435830755989166" lon="9.750632027005214"><ele>38.0</ele><time>2026-04-30T07:36:06Z</time></trkpt><trkpt lat="40.43586919773145" lon="9.750531043186076"><ele>38.0</ele><time>2026-04-30T07:36:07Z</time></trkpt><trkpt lat="40.43590535846649" lon="9.750436955576188"><ele>38.0</ele><time>2026-04-30T07:36:08Z</time></trkpt><trkpt lat="40.435946791106254" lon="9.750348101610488"><ele>38.0</ele><time>2026-04-30T07:36:09Z</time></trkpt><trkpt lat="40.43596713361046" lon="9.750249208216262"><ele>38.0</ele><time>2026-04-30T07:36:10Z</time></trkpt><trkpt lat="40.436003548077" lon="9.750169953208816"><ele>38.0</ele><time>2026-04-30T07:36:11Z</time></trkpt><trkpt lat="40.43607410097167" lon="9.75003705983378"><ele>38.0</ele><time>2026-04-30T07:36:13Z</time></trkpt><trkpt lat="40.43612570697334" lon="9.7499220448961"><ele>37.666666666666664</ele><time>2026-04-30T07:36:15Z</time></trkpt><trkpt lat="40.43616956487681" lon="9.749824316844366"><ele>37.33333333333333</ele><time>2026-04-30T07:36:17Z</time></trkpt><trkpt lat="40.43620939065009" lon="9.74973098006454"><ele>37.0</ele><time>2026-04-30T07:36:19Z</time></trkpt><trkpt lat="40.43630114468942" lon="9.749653249992791"><ele>36.666666666666664</ele><time>2026-04-30T07:36:22Z</time></trkpt><trkpt lat="40.436380607424965" lon="9.74965949761963"><ele>36.333333333333336</ele><time>2026-04-30T07:36:23Z</time></trkpt><trkpt lat="40.43645614463936" lon="9.749655119267363"><ele>36.0</ele><time>2026-04-30T07:36:24Z</time></trkpt><trkpt lat="40.436521749866195" lon="9.749632240062596"><ele>35.5</ele><time>2026-04-30T07:36:25Z</time></trkpt><trkpt lat="40.43659002022022" lon="9.749589208980105"><ele>35.0</ele><time>2026-04-30T07:36:26Z</time></trkpt><trkpt lat="40.4366635643396" lon="9.74954562903988"><ele>34.5</ele><time>2026-04-30T07:36:27Z</time></trkpt><trkpt lat="40.436744858827325" lon="9.749497150613252"><ele>34.0</ele><time>2026-04-30T07:36:28Z</time></trkpt><trkpt lat="40.436828981513834" lon="9.74944668114997"><ele>33.5</ele><time>2026-04-30T07:36:29Z</time></trkpt><trkpt lat="40.43690464536869" lon="9.749396861474933"><ele>33.0</ele><time>2026-04-30T07:36:30Z</time></trkpt><trkpt lat="40.43697666793854" lon="9.749355563548633"><ele>31.599999999999998</ele><time>2026-04-30T07:36:31Z</time></trkpt><trkpt lat="40.4370590600856" lon="9.749311160959195"><ele>30.199999999999996</ele><time>2026-04-30T07:36:32Z</time></trkpt><trkpt lat="40.43714748673937" lon="9.749271458280248"><ele>28.8</ele><time>2026-04-30T07:36:33Z</time></trkpt><trkpt lat="40.43722228063359" lon="9.74924160444466"><ele>27.4</ele><time>2026-04-30T07:36:34Z</time></trkpt><trkpt lat="40.437285925118275" lon="9.749214828619317"><ele>26.0</ele><time>2026-04-30T07:36:35Z</time></trkpt><trkpt lat="40.437402593234886" lon="9.749162809928634"><ele>25.57142857142857</ele><time>2026-04-30T07:36:37Z</time></trkpt><trkpt lat="40.43747433458119" lon="9.74912815138143"><ele>25.142857142857146</ele><time>2026-04-30T07:36:38Z</time></trkpt><trkpt lat="40.437547994092775" lon="9.749099072419376"><ele>24.714285714285715</ele><time>2026-04-30T07:36:39Z</time></trkpt><trkpt lat="40.43761970741907" lon="9.749087577278063"><ele>24.285714285714285</ele><time>2026-04-30T07:36:40Z</time></trkpt><trkpt lat="40.4376901484806" lon="9.749101975971369"><ele>23.857142857142854</ele><time>2026-04-30T07:36:41Z</time></trkpt><trkpt lat="40.43776653918443" lon="9.74912498721225"><ele>23.42857142857143</ele><time>2026-04-30T07:36:42Z</time></trkpt><trkpt lat="40.43783393043393" lon="9.749163455115303"><ele>23.0</ele><time>2026-04-30T07:36:43Z</time></trkpt><trkpt lat="40.43793295254708" lon="9.74916321388229"><ele>22.5</ele><time>2026-04-30T07:36:45Z</time></trkpt><trkpt lat="40.43801134886037" lon="9.749076296523105"><ele>22.0</ele><time>2026-04-30T07:36:47Z</time></trkpt><trkpt lat="40.43806534566188" lon="9.749015333318336"><ele>21.5</ele><time>2026-04-30T07:36:48Z</time></trkpt><trkpt lat="40.43812476795594" lon="9.748970286474467"><ele>21.0</ele><time>2026-04-30T07:36:49Z</time></trkpt><trkpt lat="40.43821002674972" lon="9.748908798363304"><ele>20.5</ele><time>2026-04-30T07:36:51Z</time></trkpt><trkpt lat="40.438290751708564" lon="9.748842096000423"><ele>20.0</ele><time>2026-04-30T07:36:53Z</time></trkpt><trkpt lat="40.43838899216073" lon="9.748757913359642"><ele>20.0</ele><time>2026-04-30T07:36:55Z</time></trkpt><trkpt lat="40.438464591790485" lon="9.74871188764809"><ele>20.0</ele><time>2026-04-30T07:36:56Z</time></trkpt><trkpt lat="40.43853493455765" lon="9.748652409727951"><ele>20.0</ele><time>2026-04-30T07:36:57Z</time></trkpt><trkpt lat="40.43859144444914" lon="9.748574243975522"><ele>20.0</ele><time>2026-04-30T07:36:58Z</time></trkpt><trkpt lat="40.43863549807169" lon="9.748495194004633"><ele>20.0</ele><time>2026-04-30T07:36:59Z</time></trkpt><trkpt lat="40.438670363541135" lon="9.748399155605528"><ele>20.0</ele><time>2026-04-30T07:37:00Z</time></trkpt><trkpt lat="40.43871491703888" lon="9.748294179157622"><ele>20.333333333333336</ele><time>2026-04-30T07:37:01Z</time></trkpt><trkpt lat="40.43875169945342" lon="9.74818204406286"><ele>20.666666666666668</ele><time>2026-04-30T07:37:02Z</time></trkpt><trkpt lat="40.43878618442431" lon="9.748078395469605"><ele>21.0</ele><time>2026-04-30T07:37:03Z</time></trkpt><trkpt lat="40.43881796036511" lon="9.747960620814927"><ele>21.333333333333332</ele><time>2026-04-30T07:37:04Z</time></trkpt><trkpt lat="40.43884568203041" lon="9.747856962352483"><ele>21.666666666666664</ele><time>2026-04-30T07:37:05Z</time></trkpt><trkpt lat="40.438876724823935" lon="9.747746980074615"><ele>22.0</ele><time>2026-04-30T07:37:06Z</time></trkpt><trkpt lat="40.43890863078" lon="9.747634790838719"><ele>22.8</ele><time>2026-04-30T07:37:07Z</time></trkpt><trkpt lat="40.438939399104896" lon="9.747525421531206"><ele>23.6</ele><time>2026-04-30T07:37:08Z</time></trkpt><trkpt lat="40.438977997240364" lon="9.747432534632873"><ele>24.400000000000002</ele><time>2026-04-30T07:37:09Z</time></trkpt><trkpt lat="40.43905358532837" lon="9.747312920951059"><ele>25.200000000000003</ele><time>2026-04-30T07:37:11Z</time></trkpt><trkpt lat="40.439131543001494" lon="9.74717737889212"><ele>26.0</ele><time>2026-04-30T07:37:13Z</time></trkpt><trkpt lat="40.43921367781176" lon="9.747073714639482"><ele>26.0</ele><time>2026-04-30T07:37:15Z</time></trkpt><trkpt lat="40.43929674668694" lon="9.747025819302948"><ele>26.0</ele><time>2026-04-30T07:37:17Z</time></trkpt><trkpt lat="40.439400501572266" lon="9.747019540229767"><ele>26.0</ele><time>2026-04-30T07:37:19Z</time></trkpt><trkpt lat="40.439467931779106" lon="9.747032985067479"><ele>26.0</ele><time>2026-04-30T07:37:21Z</time></trkpt><trkpt lat="40.43957496186022" lon="9.747025629677099"><ele>26.0</ele><time>2026-04-30T07:40:21.001Z</time></trkpt><trkpt lat="40.43968216762529" lon="9.747023511857865"><ele>25.666666666666664</ele><time>2026-04-30T07:40:23.001Z</time></trkpt><trkpt lat="40.439747614016305" lon="9.74698745402398"><ele>25.333333333333332</ele><time>2026-04-30T07:40:25.001Z</time></trkpt><trkpt lat="40.439763953828574" lon="9.746887658518034"><ele>25.0</ele><time>2026-04-30T07:40:28.001Z</time></trkpt><trkpt lat="40.439741608777865" lon="9.746787478652248"><ele>24.666666666666664</ele><time>2026-04-30T07:40:30.001Z</time></trkpt><trkpt lat="40.43971015060523" lon="9.746706856946682"><ele>24.333333333333332</ele><time>2026-04-30T07:40:31.001Z</time></trkpt><trkpt lat="40.43969221855117" lon="9.746600918708195"><ele>24.0</ele><time>2026-04-30T07:40:32.001Z</time></trkpt><trkpt lat="40.4396660223923" lon="9.74649505873497"><ele>24.0</ele><time>2026-04-30T07:40:33.001Z</time></trkpt><trkpt lat="40.4396462471542" lon="9.746387178794743"><ele>24.0</ele><time>2026-04-30T07:40:34.001Z</time></trkpt><trkpt lat="40.43963179184237" lon="9.746297116196263"><ele>24.0</ele><time>2026-04-30T07:40:35.001Z</time></trkpt><trkpt lat="40.439649209529414" lon="9.746136548126541"><ele>24.0</ele><time>2026-04-30T07:40:37.001Z</time></trkpt><trkpt lat="40.439737895455124" lon="9.746011670273518"><ele>24.0</ele><time>2026-04-30T07:40:39.001Z</time></trkpt><trkpt lat="40.43980214458749" lon="9.745961453244416"><ele>25.0</ele><time>2026-04-30T07:40:40.001Z</time></trkpt><trkpt lat="40.439868208206505" lon="9.74591375240882"><ele>26.0</ele><time>2026-04-30T07:40:41.001Z</time></trkpt><trkpt lat="40.439940969767136" lon="9.745855978621572"><ele>27.0</ele><time>2026-04-30T07:40:42.001Z</time></trkpt><trkpt lat="40.440015743227846" lon="9.745795369073743"><ele>28.0</ele><time>2026-04-30T07:40:43.001Z</time></trkpt><trkpt lat="40.440099719668495" lon="9.745728697141056"><ele>29.0</ele><time>2026-04-30T07:40:44.001Z</time></trkpt><trkpt lat="40.440183645738024" lon="9.745668961516698"><ele>30.0</ele><time>2026-04-30T07:40:45.001Z</time></trkpt><trkpt lat="40.44026120383849" lon="9.745619741013265"><ele>30.0</ele><time>2026-04-30T07:40:46.001Z</time></trkpt><trkpt lat="40.44032014092391" lon="9.745555492313848"><ele>30.0</ele><time>2026-04-30T07:40:47.001Z</time></trkpt><trkpt lat="40.44035898814695" lon="9.745482780717014"><ele>30.0</ele><time>2026-04-30T07:40:48.001Z</time></trkpt><trkpt lat="40.44035359337231" lon="9.74535999349913"><ele>30.0</ele><time>2026-04-30T07:40:50.001Z</time></trkpt><trkpt lat="40.44030203693003" lon="9.745208271903246"><ele>30.0</ele><time>2026-04-30T07:40:52.001Z</time></trkpt><trkpt lat="40.44026849510127" lon="9.745111037901484"><ele>30.0</ele><time>2026-04-30T07:40:53.001Z</time></trkpt><trkpt lat="40.44023184244328" lon="9.745004311023447"><ele>31.2</ele><time>2026-04-30T07:40:54.001Z</time></trkpt><trkpt lat="40.44019330359521" lon="9.744905131724455"><ele>32.4</ele><time>2026-04-30T07:40:55.001Z</time></trkpt><trkpt lat="40.44014711760129" lon="9.744808596305635"><ele>33.6</ele><time>2026-04-30T07:40:56.001Z</time></trkpt><trkpt lat="40.44008578662026" lon="9.74472305210261"><ele>34.8</ele><time>2026-04-30T07:40:57.001Z</time></trkpt><trkpt lat="40.44001708071095" lon="9.744638953683165"><ele>36.0</ele><time>2026-04-30T07:40:58.001Z</time></trkpt><trkpt lat="40.43993366486035" lon="9.744558633761004"><ele>36.0</ele><time>2026-04-30T07:40:59.001Z</time></trkpt><trkpt lat="40.439849191097515" lon="9.744483522081655"><ele>36.0</ele><time>2026-04-30T07:41:00.001Z</time></trkpt><trkpt lat="40.439759917785096" lon="9.744416689449018"><ele>36.0</ele><time>2026-04-30T07:41:01.001Z</time></trkpt><trkpt lat="40.43965649890729" lon="9.744354008944649"><ele>36.0</ele><time>2026-04-30T07:41:02.001Z</time></trkpt><trkpt lat="40.43955674584548" lon="9.744287851728805"><ele>36.0</ele><time>2026-04-30T07:41:03.001Z</time></trkpt><trkpt lat="40.439473424994226" lon="9.74423329104415"><ele>38.0</ele><time>2026-04-30T07:41:04.001Z</time></trkpt><trkpt lat="40.43941365334544" lon="9.744188514330062"><ele>40.0</ele><time>2026-04-30T07:41:05.001Z</time></trkpt><trkpt lat="40.43937235536829" lon="9.744068639851227"><ele>42.0</ele><time>2026-04-30T07:41:07.001Z</time></trkpt><trkpt lat="40.43936034441494" lon="9.743894726762818"><ele>44.0</ele><time>2026-04-30T07:41:09.001Z</time></trkpt><trkpt lat="40.439338008395" lon="9.743790789796787"><ele>46.0</ele><time>2026-04-30T07:41:10.001Z</time></trkpt><trkpt lat="40.43930332883448" lon="9.743703486450087"><ele>46.0</ele><time>2026-04-30T07:41:11.001Z</time></trkpt><trkpt lat="40.439252533126506" lon="9.7436128924048"><ele>46.0</ele><time>2026-04-30T07:41:12.001Z</time></trkpt><trkpt lat="40.43917479304033" lon="9.7435412538002"><ele>46.0</ele><time>2026-04-30T07:41:13.001Z</time></trkpt><trkpt lat="40.43909510666695" lon="9.743491412265914"><ele>46.0</ele><time>2026-04-30T07:41:14.001Z</time></trkpt><trkpt lat="40.4390416074763" lon="9.743416288759343"><ele>46.0</ele><time>2026-04-30T07:41:15.001Z</time></trkpt><trkpt lat="40.43900193982951" lon="9.74331416201221"><ele>46.0</ele><time>2026-04-30T07:41:16.001Z</time></trkpt><trkpt lat="40.438979013051195" lon="9.743205410698558"><ele>46.0</ele><time>2026-04-30T07:41:17.001Z</time></trkpt><trkpt lat="40.43897381084689" lon="9.74309146087005"><ele>46.0</ele><time>2026-04-30T07:41:18.001Z</time></trkpt><trkpt lat="40.43898159084651" lon="9.742982758500846"><ele>46.0</ele><time>2026-04-30T07:41:19.001Z</time></trkpt><trkpt lat="40.43899580259008" lon="9.742877027797647"><ele>46.0</ele><time>2026-04-30T07:41:20.001Z</time></trkpt><trkpt lat="40.43900662750267" lon="9.742774789821258"><ele>46.0</ele><time>2026-04-30T07:41:21.001Z</time></trkpt><trkpt lat="40.4390059709544" lon="9.742676239754784"><ele>46.0</ele><time>2026-04-30T07:41:22.001Z</time></trkpt><trkpt lat="40.43900114777397" lon="9.742581991823393"><ele>46.0</ele><time>2026-04-30T07:41:23.001Z</time></trkpt><trkpt lat="40.43899466299724" lon="9.742489599617677"><ele>46.0</ele><time>2026-04-30T07:41:24.002Z</time></trkpt><trkpt lat="40.438989748860976" lon="9.742387896227527"><ele>46.0</ele><time>2026-04-30T07:41:25.002Z</time></trkpt><trkpt lat="40.438982313285074" lon="9.742273190627444"><ele>46.0</ele><time>2026-04-30T07:41:26.002Z</time></trkpt><trkpt lat="40.438968631172436" lon="9.742160882451378"><ele>46.0</ele><time>2026-04-30T07:41:27.002Z</time></trkpt><trkpt lat="40.438949041039514" lon="9.742032765748867"><ele>46.0</ele><time>2026-04-30T07:41:28.002Z</time></trkpt><trkpt lat="40.43892104530645" lon="9.741894275035742"><ele>46.4</ele><time>2026-04-30T07:41:29.002Z</time></trkpt><trkpt lat="40.43888841310455" lon="9.741763441474665"><ele>46.8</ele><time>2026-04-30T07:41:30.002Z</time></trkpt><trkpt lat="40.438833278206054" lon="9.741635077271074"><ele>47.199999999999996</ele><time>2026-04-30T07:41:31.002Z</time></trkpt><trkpt lat="40.43878589416309" lon="9.74152919605342"><ele>47.599999999999994</ele><time>2026-04-30T07:41:32.002Z</time></trkpt><trkpt lat="40.438727615719166" lon="9.741423726684435"><ele>48.0</ele><time>2026-04-30T07:41:33.002Z</time></trkpt><trkpt lat="40.438660710920686" lon="9.741315721462657"><ele>48.4</ele><time>2026-04-30T07:41:34.002Z</time></trkpt><trkpt lat="40.43861776026041" lon="9.741234121120609"><ele>48.8</ele><time>2026-04-30T07:41:35.002Z</time></trkpt><trkpt lat="40.43853450305246" lon="9.741144870655553"><ele>49.2</ele><time>2026-04-30T07:41:36.002Z</time></trkpt><trkpt lat="40.438447803163065" lon="9.741055882167561"><ele>49.6</ele><time>2026-04-30T07:41:37.002Z</time></trkpt><trkpt lat="40.438346263278795" lon="9.740975403126889"><ele>50.0</ele><time>2026-04-30T07:41:38.002Z</time></trkpt><trkpt lat="40.438253658839955" lon="9.740889827475444"><ele>50.0</ele><time>2026-04-30T07:41:39.002Z</time></trkpt><trkpt lat="40.4381630359094" lon="9.740802879418368"><ele>50.0</ele><time>2026-04-30T07:41:40.002Z</time></trkpt><trkpt lat="40.438076945864964" lon="9.74072171092274"><ele>50.0</ele><time>2026-04-30T07:41:41.002Z</time></trkpt><trkpt lat="40.43798579229061" lon="9.74063953205583"><ele>50.0</ele><time>2026-04-30T07:41:42.002Z</time></trkpt><trkpt lat="40.437890722063976" lon="9.740552392822638"><ele>50.0</ele><time>2026-04-30T07:41:43.002Z</time></trkpt><trkpt lat="40.43780112745265" lon="9.74046854288211"><ele>50.0</ele><time>2026-04-30T07:41:44.002Z</time></trkpt><trkpt lat="40.437733714593186" lon="9.740361202053698"><ele>50.0</ele><time>2026-04-30T07:41:45.002Z</time></trkpt><trkpt lat="40.43767670566586" lon="9.740263846994544"><ele>50.0</ele><time>2026-04-30T07:41:46.002Z</time></trkpt><trkpt lat="40.43760090175655" lon="9.740153123137866"><ele>50.0</ele><time>2026-04-30T07:41:47.002Z</time></trkpt><trkpt lat="40.43752302652251" lon="9.74004305399571"><ele>50.0</ele><time>2026-04-30T07:41:48.002Z</time></trkpt><trkpt lat="40.4374440080335" lon="9.739935645685062"><ele>49.6</ele><time>2026-04-30T07:41:49.002Z</time></trkpt><trkpt lat="40.437367807598214" lon="9.739834200296011"><ele>49.2</ele><time>2026-04-30T07:41:50.001Z</time></trkpt><trkpt lat="40.437285511936274" lon="9.739731101812131"><ele>48.8</ele><time>2026-04-30T07:41:51Z</time></trkpt><trkpt lat="40.437200074067256" lon="9.739634092733334"><ele>48.4</ele><time>2026-04-30T07:41:52Z</time></trkpt><trkpt lat="40.437113770315946" lon="9.739541399073916"><ele>48.0</ele><time>2026-04-30T07:41:53.001Z</time></trkpt><trkpt lat="40.437023461426726" lon="9.73945800474796"><ele>50.166666666666664</ele><time>2026-04-30T07:41:54.001Z</time></trkpt><trkpt lat="40.43694789728351" lon="9.739366329454763"><ele>52.33333333333333</ele><time>2026-04-30T07:41:55.001Z</time></trkpt><trkpt lat="40.43690380893603" lon="9.739283229492496"><ele>54.5</ele><time>2026-04-30T07:41:56.001Z</time></trkpt><trkpt lat="40.436886249035396" lon="9.73916436192185"><ele>56.666666666666664</ele><time>2026-04-30T07:41:57.001Z</time></trkpt><trkpt lat="40.436884106158054" lon="9.739060261852824"><ele>58.83333333333333</ele><time>2026-04-30T07:41:58.001Z</time></trkpt><trkpt lat="40.43689714435693" lon="9.738954795119142"><ele>61.0</ele><time>2026-04-30T07:41:59.001Z</time></trkpt><trkpt lat="40.4369054786875" lon="9.73883738788669"><ele>60.99999999999999</ele><time>2026-04-30T07:42:00.001Z</time></trkpt><trkpt lat="40.43693912163613" lon="9.738738933770016"><ele>61.0</ele><time>2026-04-30T07:42:01.001Z</time></trkpt><trkpt lat="40.436981739477616" lon="9.738645044338936"><ele>61.0</ele><time>2026-04-30T07:42:02.001Z</time></trkpt><trkpt lat="40.43705959056546" lon="9.738580658729225"><ele>61.0</ele><time>2026-04-30T07:42:03.001Z</time></trkpt><trkpt lat="40.43710896050389" lon="9.738494169798896"><ele>60.99999999999999</ele><time>2026-04-30T07:42:04.001Z</time></trkpt><trkpt lat="40.437147105199" lon="9.73839049565233"><ele>61.0</ele><time>2026-04-30T07:42:05.001Z</time></trkpt><trkpt lat="40.437171544810276" lon="9.73828760073673"><ele>60.33333333333333</ele><time>2026-04-30T07:42:06.001Z</time></trkpt><trkpt lat="40.43718149954304" lon="9.738191302716473"><ele>59.666666666666664</ele><time>2026-04-30T07:42:07.001Z</time></trkpt><trkpt lat="40.437169732810844" lon="9.738109501234957"><ele>59.0</ele><time>2026-04-30T07:42:08.001Z</time></trkpt><trkpt lat="40.43708050902358" lon="9.737983726628922"><ele>58.33333333333333</ele><time>2026-04-30T07:42:10.001Z</time></trkpt><trkpt lat="40.437003464884135" lon="9.737930981380996"><ele>57.666666666666664</ele><time>2026-04-30T07:42:11.001Z</time></trkpt><trkpt lat="40.43691919112181" lon="9.737885277701128"><ele>57.0</ele><time>2026-04-30T07:42:12.001Z</time></trkpt><trkpt lat="40.43682754416355" lon="9.737844568254443"><ele>57.0</ele><time>2026-04-30T07:42:13.001Z</time></trkpt><trkpt lat="40.43672464931814" lon="9.7377887511609"><ele>57.0</ele><time>2026-04-30T07:42:14.001Z</time></trkpt><trkpt lat="40.43661951677703" lon="9.737747929254164"><ele>57.0</ele><time>2026-04-30T07:42:15.001Z</time></trkpt><trkpt lat="40.43651302751391" lon="9.737703588654297"><ele>57.0</ele><time>2026-04-30T07:42:16.001Z</time></trkpt><trkpt lat="40.436411202532376" lon="9.737656807089934"><ele>57.0</ele><time>2026-04-30T07:42:17.001Z</time></trkpt><trkpt lat="40.43631326998399" lon="9.737628771488271"><ele>57.0</ele><time>2026-04-30T07:42:18.001Z</time></trkpt><trkpt lat="40.436216829169155" lon="9.737603485086503"><ele>57.0</ele><time>2026-04-30T07:42:19.001Z</time></trkpt><trkpt lat="40.43612807095976" lon="9.737570168094685"><ele>57.0</ele><time>2026-04-30T07:42:20.001Z</time></trkpt><trkpt lat="40.43604513982289" lon="9.737524947179853"><ele>57.0</ele><time>2026-04-30T07:42:21.001Z</time></trkpt><trkpt lat="40.43596546859048" lon="9.73747865304377"><ele>57.0</ele><time>2026-04-30T07:42:22.001Z</time></trkpt><trkpt lat="40.43591052967204" lon="9.737396397932853"><ele>57.0</ele><time>2026-04-30T07:42:23.001Z</time></trkpt><trkpt lat="40.43583802257235" lon="9.737335457839514"><ele>57.0</ele><time>2026-04-30T07:42:24.001Z</time></trkpt><trkpt lat="40.43577718269653" lon="9.737243258278529"><ele>57.0</ele><time>2026-04-30T07:42:25.001Z</time></trkpt><trkpt lat="40.435720191013594" lon="9.737132067078315"><ele>57.0</ele><time>2026-04-30T07:42:26.001Z</time></trkpt><trkpt lat="40.43567330470372" lon="9.737013187747223"><ele>57.0</ele><time>2026-04-30T07:42:27.001Z</time></trkpt><trkpt lat="40.43562605790311" lon="9.736883036345551"><ele>57.6</ele><time>2026-04-30T07:42:28.001Z</time></trkpt><trkpt lat="40.43558078973398" lon="9.736750914795216"><ele>58.2</ele><time>2026-04-30T07:42:29.001Z</time></trkpt><trkpt lat="40.43553981857651" lon="9.736622616412268"><ele>58.8</ele><time>2026-04-30T07:42:30.001Z</time></trkpt><trkpt lat="40.435503350106565" lon="9.736486758370557"><ele>59.4</ele><time>2026-04-30T07:42:31.001Z</time></trkpt><trkpt lat="40.43546986618435" lon="9.736345587124367"><ele>60.0</ele><time>2026-04-30T07:42:32.001Z</time></trkpt><trkpt lat="40.435438329670504" lon="9.736211336415742"><ele>60.666666666666664</ele><time>2026-04-30T07:42:33.001Z</time></trkpt><trkpt lat="40.4354234255942" lon="9.7360877568255"><ele>61.33333333333333</ele><time>2026-04-30T07:42:34.001Z</time></trkpt><trkpt lat="40.435379687968364" lon="9.735969492526467"><ele>62.0</ele><time>2026-04-30T07:42:35.001Z</time></trkpt><trkpt lat="40.43533489683424" lon="9.735865481226208"><ele>62.666666666666664</ele><time>2026-04-30T07:42:36.001Z</time></trkpt><trkpt lat="40.43531046228193" lon="9.735758274310605"><ele>63.33333333333333</ele><time>2026-04-30T07:42:37.001Z</time></trkpt><trkpt lat="40.435307625813905" lon="9.73565643900036"><ele>64.0</ele><time>2026-04-30T07:42:38.001Z</time></trkpt><trkpt lat="40.43532565481343" lon="9.735559051650288"><ele>64.16666666666666</ele><time>2026-04-30T07:42:39.001Z</time></trkpt><trkpt lat="40.4353614311217" lon="9.735460561163544"><ele>64.33333333333333</ele><time>2026-04-30T07:42:40.001Z</time></trkpt><trkpt lat="40.43540361008641" lon="9.735352545919808"><ele>64.5</ele><time>2026-04-30T07:42:41.001Z</time></trkpt><trkpt lat="40.4354415442215" lon="9.735244411728786"><ele>64.66666666666667</ele><time>2026-04-30T07:42:42.001Z</time></trkpt><trkpt lat="40.43547823257201" lon="9.735132249975095"><ele>64.83333333333334</ele><time>2026-04-30T07:42:43.001Z</time></trkpt><trkpt lat="40.43550458041922" lon="9.735025761828926"><ele>65.0</ele><time>2026-04-30T07:42:44.001Z</time></trkpt><trkpt lat="40.43553510224884" lon="9.734917810730385"><ele>66.33333333333334</ele><time>2026-04-30T07:42:45.001Z</time></trkpt><trkpt lat="40.43556913166109" lon="9.734832308763503"><ele>67.66666666666667</ele><time>2026-04-30T07:42:46.001Z</time></trkpt><trkpt lat="40.43561209044247" lon="9.734762955853753"><ele>69.0</ele><time>2026-04-30T07:42:47.001Z</time></trkpt><trkpt lat="40.4356725147643" lon="9.734698052197587"><ele>70.33333333333333</ele><time>2026-04-30T07:42:48.001Z</time></trkpt><trkpt lat="40.43575009838754" lon="9.734633821225039"><ele>71.66666666666666</ele><time>2026-04-30T07:42:49.001Z</time></trkpt><trkpt lat="40.435828136165725" lon="9.734572779576093"><ele>73.0</ele><time>2026-04-30T07:42:50.001Z</time></trkpt><trkpt lat="40.43591233338245" lon="9.734497065069966"><ele>73.0</ele><time>2026-04-30T07:42:51.001Z</time></trkpt><trkpt lat="40.43598784547791" lon="9.734411387396566"><ele>73.0</ele><time>2026-04-30T07:42:52.001Z</time></trkpt><trkpt lat="40.43605257398106" lon="9.73431079453018"><ele>73.0</ele><time>2026-04-30T07:42:53.001Z</time></trkpt><trkpt lat="40.43609923612327" lon="9.734199765667428"><ele>73.0</ele><time>2026-04-30T07:42:54.001Z</time></trkpt><trkpt lat="40.43613999000177" lon="9.734074048914621"><ele>73.0</ele><time>2026-04-30T07:42:55.001Z</time></trkpt><trkpt lat="40.43618148801673" lon="9.733940500950702"><ele>72.8</ele><time>2026-04-30T07:42:56.001Z</time></trkpt><trkpt lat="40.43622079446111" lon="9.733809093374175"><ele>72.6</ele><time>2026-04-30T07:42:57.001Z</time></trkpt><trkpt lat="40.43625745678791" lon="9.73367655408645"><ele>72.4</ele><time>2026-04-30T07:42:58.001Z</time></trkpt><trkpt lat="40.43628128347206" lon="9.733550903609135"><ele>72.2</ele><time>2026-04-30T07:42:59.001Z</time></trkpt><trkpt lat="40.43629663197054" lon="9.733435419394286"><ele>72.0</ele><time>2026-04-30T07:43:00.001Z</time></trkpt><trkpt lat="40.43630778989559" lon="9.733338032755661"><ele>72.6</ele><time>2026-04-30T07:43:01.001Z</time></trkpt><trkpt lat="40.436300786738556" lon="9.73323334824766"><ele>73.2</ele><time>2026-04-30T07:43:02.001Z</time></trkpt><trkpt lat="40.43627995417578" lon="9.733117082524"><ele>73.8</ele><time>2026-04-30T07:43:03.001Z</time></trkpt><trkpt lat="40.43624533422436" lon="9.73299551675593"><ele>74.4</ele><time>2026-04-30T07:43:04.001Z</time></trkpt><trkpt lat="40.43619623322735" lon="9.732853945672462"><ele>75.0</ele><time>2026-04-30T07:43:05.001Z</time></trkpt><trkpt lat="40.436159414587436" lon="9.732713954480417"><ele>76.25</ele><time>2026-04-30T07:43:06.001Z</time></trkpt><trkpt lat="40.43613479100625" lon="9.732550088100067"><ele>77.5</ele><time>2026-04-30T07:43:07.001Z</time></trkpt><trkpt lat="40.43610893563948" lon="9.73239849705756"><ele>78.75</ele><time>2026-04-30T07:43:08.001Z</time></trkpt><trkpt lat="40.43607270463741" lon="9.732260950000663"><ele>80.0</ele><time>2026-04-30T07:43:09.001Z</time></trkpt><trkpt lat="40.43603281413068" lon="9.73212687939046"><ele>80.0</ele><time>2026-04-30T07:43:10.001Z</time></trkpt><trkpt lat="40.435982781246665" lon="9.731986279628325"><ele>80.0</ele><time>2026-04-30T07:43:11.001Z</time></trkpt><trkpt lat="40.435929939221964" lon="9.73183994713339"><ele>80.0</ele><time>2026-04-30T07:43:12.001Z</time></trkpt><trkpt lat="40.4358773250797" lon="9.731687390128421"><ele>80.0</ele><time>2026-04-30T07:43:13.001Z</time></trkpt><trkpt lat="40.43582781221012" lon="9.731543269896154"><ele>80.75</ele><time>2026-04-30T07:43:14.001Z</time></trkpt><trkpt lat="40.43577651087906" lon="9.731403509712383"><ele>81.5</ele><time>2026-04-30T07:43:15.001Z</time></trkpt><trkpt lat="40.43572917415407" lon="9.731266987519678"><ele>82.25</ele><time>2026-04-30T07:43:16.001Z</time></trkpt><trkpt lat="40.43568328048357" lon="9.731127541944042"><ele>83.0</ele><time>2026-04-30T07:43:17.001Z</time></trkpt><trkpt lat="40.435636156951134" lon="9.730994604760063"><ele>84.80000000000001</ele><time>2026-04-30T07:43:18.001Z</time></trkpt><trkpt lat="40.435587638582916" lon="9.730854621957201"><ele>86.6</ele><time>2026-04-30T07:43:19.001Z</time></trkpt><trkpt lat="40.43554872915255" lon="9.730715631251446"><ele>88.4</ele><time>2026-04-30T07:43:20.001Z</time></trkpt><trkpt lat="40.435507458076266" lon="9.730589553990505"><ele>90.19999999999999</ele><time>2026-04-30T07:43:21.001Z</time></trkpt><trkpt lat="40.43547629280886" lon="9.730469390302153"><ele>92.0</ele><time>2026-04-30T07:43:22.001Z</time></trkpt><trkpt lat="40.43546289851073" lon="9.73034779856099"><ele>94.6</ele><time>2026-04-30T07:43:23.001Z</time></trkpt><trkpt lat="40.43546306588687" lon="9.73021049041266"><ele>97.19999999999999</ele><time>2026-04-30T07:43:24.001Z</time></trkpt><trkpt lat="40.435468970092" lon="9.730071760272164"><ele>99.8</ele><time>2026-04-30T07:43:25.001Z</time></trkpt><trkpt lat="40.43547440028327" lon="9.729947752286526"><ele>102.4</ele><time>2026-04-30T07:43:26.001Z</time></trkpt><trkpt lat="40.435485449542256" lon="9.729807811385307"><ele>105.0</ele><time>2026-04-30T07:43:27.001Z</time></trkpt><trkpt lat="40.4354934723762" lon="9.729660623531563"><ele>105.0</ele><time>2026-04-30T07:43:28.001Z</time></trkpt><trkpt lat="40.4355269528158" lon="9.72951210970253"><ele>105.0</ele><time>2026-04-30T07:43:29.001Z</time></trkpt><trkpt lat="40.4355575729634" lon="9.72936423336263"><ele>105.0</ele><time>2026-04-30T07:43:30.001Z</time></trkpt><trkpt lat="40.43557892995695" lon="9.72921455778579"><ele>105.0</ele><time>2026-04-30T07:43:31.001Z</time></trkpt><trkpt lat="40.43559981095435" lon="9.72906502007861"><ele>107.5</ele><time>2026-04-30T07:43:32.001Z</time></trkpt><trkpt lat="40.435624559045316" lon="9.72891632175574"><ele>110.0</ele><time>2026-04-30T07:43:33.001Z</time></trkpt><trkpt lat="40.435647523917666" lon="9.728760859523923"><ele>112.5</ele><time>2026-04-30T07:43:34.001Z</time></trkpt><trkpt lat="40.43566459152949" lon="9.72861002043958"><ele>115.0</ele><time>2026-04-30T07:43:35.001Z</time></trkpt><trkpt lat="40.43566980125357" lon="9.728466584339646"><ele>115.2</ele><time>2026-04-30T07:43:36.001Z</time></trkpt><trkpt lat="40.435680344040854" lon="9.728330841493257"><ele>115.4</ele><time>2026-04-30T07:43:37.001Z</time></trkpt><trkpt lat="40.435714865436374" lon="9.72820676043302"><ele>115.6</ele><time>2026-04-30T07:43:38.001Z</time></trkpt><trkpt lat="40.43575136625572" lon="9.728103953986677"><ele>115.8</ele><time>2026-04-30T07:43:39.001Z</time></trkpt><trkpt lat="40.43576240889388" lon="9.728010046075486"><ele>116.0</ele><time>2026-04-30T07:43:40.001Z</time></trkpt><trkpt lat="40.43575564191799" lon="9.72789583299926"><ele>116.0</ele><time>2026-04-30T07:43:41.001Z</time></trkpt><trkpt lat="40.4357348056723" lon="9.72777435461191"><ele>116.0</ele><time>2026-04-30T07:43:42.001Z</time></trkpt><trkpt lat="40.43571272973709" lon="9.727635669288352"><ele>116.0</ele><time>2026-04-30T07:43:43.002Z</time></trkpt><trkpt lat="40.435699360419676" lon="9.727492065606954"><ele>116.0</ele><time>2026-04-30T07:43:44.002Z</time></trkpt><trkpt lat="40.43572325581382" lon="9.72734541402971"><ele>116.0</ele><time>2026-04-30T07:43:45.002Z</time></trkpt><trkpt lat="40.43572417784339" lon="9.727199209184695"><ele>115.6</ele><time>2026-04-30T07:43:46.002Z</time></trkpt><trkpt lat="40.43572816655983" lon="9.727056466074515"><ele>115.19999999999999</ele><time>2026-04-30T07:43:47.002Z</time></trkpt><trkpt lat="40.43573738228351" lon="9.726921495819765"><ele>114.80000000000001</ele><time>2026-04-30T07:43:48.002Z</time></trkpt><trkpt lat="40.43575447838174" lon="9.726792813367325"><ele>114.4</ele><time>2026-04-30T07:43:49.002Z</time></trkpt><trkpt lat="40.43578946287265" lon="9.726661912449135"><ele>114.0</ele><time>2026-04-30T07:43:50.002Z</time></trkpt><trkpt lat="40.43584238736249" lon="9.726535268879667"><ele>113.75</ele><time>2026-04-30T07:43:51.002Z</time></trkpt><trkpt lat="40.43590239311447" lon="9.726401559535155"><ele>113.5</ele><time>2026-04-30T07:43:52.002Z</time></trkpt><trkpt lat="40.43597050827893" lon="9.726263710494244"><ele>113.25</ele><time>2026-04-30T07:43:53.002Z</time></trkpt><trkpt lat="40.43603836407963" lon="9.726127644008487"><ele>113.0</ele><time>2026-04-30T07:43:54.002Z</time></trkpt><trkpt lat="40.436105586789395" lon="9.725984908358267"><ele>113.0</ele><time>2026-04-30T07:43:55.002Z</time></trkpt><trkpt lat="40.43615709484731" lon="9.725854928226864"><ele>113.0</ele><time>2026-04-30T07:43:56.002Z</time></trkpt><trkpt lat="40.436199764580884" lon="9.725721984743675"><ele>113.0</ele><time>2026-04-30T07:43:57.002Z</time></trkpt><trkpt lat="40.43624082716441" lon="9.725579965063375"><ele>113.0</ele><time>2026-04-30T07:43:58.002Z</time></trkpt><trkpt lat="40.43628439540781" lon="9.72543212808991"><ele>116.75</ele><time>2026-04-30T07:43:59.002Z</time></trkpt><trkpt lat="40.436330575150976" lon="9.725290886163936"><ele>120.5</ele><time>2026-04-30T07:44:00.002Z</time></trkpt><trkpt lat="40.43637166681941" lon="9.725139765467809"><ele>124.25</ele><time>2026-04-30T07:44:01.002Z</time></trkpt><trkpt lat="40.436412929296914" lon="9.724993250644049"><ele>128.0</ele><time>2026-04-30T07:44:02.002Z</time></trkpt><trkpt lat="40.436454247833375" lon="9.7248433294248"><ele>128.0</ele><time>2026-04-30T07:44:03.002Z</time></trkpt><trkpt lat="40.43649846216079" lon="9.724691718175956"><ele>128.0</ele><time>2026-04-30T07:44:04.002Z</time></trkpt><trkpt lat="40.43655752747019" lon="9.724565599743999"><ele>128.0</ele><time>2026-04-30T07:44:05.002Z</time></trkpt><trkpt lat="40.43660858684048" lon="9.724418637222207"><ele>128.0</ele><time>2026-04-30T07:44:06.002Z</time></trkpt><trkpt lat="40.43667134028045" lon="9.724273536035236"><ele>127.25</ele><time>2026-04-30T07:44:07.002Z</time></trkpt><trkpt lat="40.43673234980588" lon="9.724130224033242"><ele>126.5</ele><time>2026-04-30T07:44:08.002Z</time></trkpt><trkpt lat="40.43678396596887" lon="9.723998397292322"><ele>125.75</ele><time>2026-04-30T07:44:09.002Z</time></trkpt><trkpt lat="40.436825469473845" lon="9.723852135732376"><ele>125.0</ele><time>2026-04-30T07:44:10.002Z</time></trkpt><trkpt lat="40.43685375653134" lon="9.72372409781658"><ele>125.0</ele><time>2026-04-30T07:44:11.002Z</time></trkpt><trkpt lat="40.436861328438205" lon="9.723599873473312"><ele>125.0</ele><time>2026-04-30T07:44:12.002Z</time></trkpt><trkpt lat="40.43685206056003" lon="9.723488431620122"><ele>125.0</ele><time>2026-04-30T07:44:13.002Z</time></trkpt><trkpt lat="40.436819202887705" lon="9.723392364716538"><ele>125.0</ele><time>2026-04-30T07:44:14.002Z</time></trkpt><trkpt lat="40.43675813699066" lon="9.723289253591561"><ele>125.0</ele><time>2026-04-30T07:44:15.002Z</time></trkpt><trkpt lat="40.436688685063565" lon="9.72316967693739"><ele>124.75</ele><time>2026-04-30T07:44:16.002Z</time></trkpt><trkpt lat="40.43660333999507" lon="9.723029978813727"><ele>124.5</ele><time>2026-04-30T07:44:17.002Z</time></trkpt><trkpt lat="40.436518811920095" lon="9.722896348264754"><ele>124.25</ele><time>2026-04-30T07:44:18.002Z</time></trkpt><trkpt lat="40.43644233483669" lon="9.722746636441437"><ele>124.0</ele><time>2026-04-30T07:44:19.002Z</time></trkpt><trkpt lat="40.43635244355132" lon="9.722607566122605"><ele>123.4</ele><time>2026-04-30T07:44:20.002Z</time></trkpt><trkpt lat="40.436263630555615" lon="9.72248329460196"><ele>122.80000000000001</ele><time>2026-04-30T07:44:21.002Z</time></trkpt><trkpt lat="40.43617829584939" lon="9.722367989123176"><ele>122.19999999999999</ele><time>2026-04-30T07:44:22.002Z</time></trkpt><trkpt lat="40.43611283390785" lon="9.722278285826649"><ele>121.6</ele><time>2026-04-30T07:44:23.002Z</time></trkpt><trkpt lat="40.43604649570039" lon="9.72219837003758"><ele>121.0</ele><time>2026-04-30T07:44:24.002Z</time></trkpt><trkpt lat="40.43597067081102" lon="9.722123781133396"><ele>121.00000000000001</ele><time>2026-04-30T07:44:25.002Z</time></trkpt><trkpt lat="40.43590769342551" lon="9.722068280554744"><ele>121.0</ele><time>2026-04-30T07:44:26.002Z</time></trkpt><trkpt lat="40.435838428587104" lon="9.722059255924043"><ele>121.0</ele><time>2026-04-30T07:44:27.002Z</time></trkpt><trkpt lat="40.43576590319352" lon="9.722069469988186"><ele>121.0</ele><time>2026-04-30T07:44:28.002Z</time></trkpt><trkpt lat="40.435682902013134" lon="9.722106317156884"><ele>121.00000000000001</ele><time>2026-04-30T07:44:29.002Z</time></trkpt><trkpt lat="40.43559355331365" lon="9.722167138666423"><ele>121.0</ele><time>2026-04-30T07:44:30.002Z</time></trkpt><trkpt lat="40.43551337143469" lon="9.722227849849615"><ele>121.6</ele><time>2026-04-30T07:44:31.002Z</time></trkpt><trkpt lat="40.43543470296906" lon="9.722289358244394"><ele>122.19999999999999</ele><time>2026-04-30T07:44:32.002Z</time></trkpt><trkpt lat="40.43535250631491" lon="9.722349983660783"><ele>122.80000000000001</ele><time>2026-04-30T07:44:33.002Z</time></trkpt><trkpt lat="40.435271119012775" lon="9.722417316837406"><ele>123.4</ele><time>2026-04-30T07:44:34.002Z</time></trkpt><trkpt lat="40.43518260075998" lon="9.722431611160543"><ele>124.0</ele><time>2026-04-30T07:44:35.002Z</time></trkpt><trkpt lat="40.43508750670446" lon="9.722436536151683"><ele>124.0</ele><time>2026-04-30T07:44:36.002Z</time></trkpt><trkpt lat="40.43498949239856" lon="9.722438951971839"><ele>124.0</ele><time>2026-04-30T07:44:37.002Z</time></trkpt><trkpt lat="40.43490095574573" lon="9.722403737764923"><ele>124.0</ele><time>2026-04-30T07:44:38.002Z</time></trkpt><trkpt lat="40.43481710138921" lon="9.722358905991912"><ele>124.0</ele><time>2026-04-30T07:44:39.002Z</time></trkpt><trkpt lat="40.43473041687524" lon="9.7223153222054"><ele>124.0</ele><time>2026-04-30T07:44:40.002Z</time></trkpt><trkpt lat="40.43467628659473" lon="9.722222680665723"><ele>124.0</ele><time>2026-04-30T07:44:41.002Z</time></trkpt><trkpt lat="40.43466289757666" lon="9.722105192992853"><ele>124.0</ele><time>2026-04-30T07:44:42.002Z</time></trkpt><trkpt lat="40.43462265975736" lon="9.721994284291885"><ele>124.0</ele><time>2026-04-30T07:44:43.002Z</time></trkpt><trkpt lat="40.43458042174813" lon="9.721893319481493"><ele>124.0</ele><time>2026-04-30T07:44:44.002Z</time></trkpt><trkpt lat="40.43454567641053" lon="9.721773885211277"><ele>124.0</ele><time>2026-04-30T07:44:45.002Z</time></trkpt><trkpt lat="40.43451645483044" lon="9.721663048176358"><ele>125.80000000000001</ele><time>2026-04-30T07:44:46.002Z</time></trkpt><trkpt lat="40.434538434322924" lon="9.721549377130675"><ele>127.60000000000001</ele><time>2026-04-30T07:44:47.002Z</time></trkpt><trkpt lat="40.4345282888638" lon="9.721464043217315"><ele>129.4</ele><time>2026-04-30T07:44:48.002Z</time></trkpt><trkpt lat="40.43453808730752" lon="9.721330758326074"><ele>131.20000000000002</ele><time>2026-04-30T07:44:50.002Z</time></trkpt><trkpt lat="40.434549308947695" lon="9.721186923669158"><ele>133.0</ele><time>2026-04-30T07:44:52.002Z</time></trkpt><trkpt lat="40.43457973746676" lon="9.721060811540328"><ele>131.0</ele><time>2026-04-30T07:44:54.002Z</time></trkpt><trkpt lat="40.43466873723237" lon="9.720935197476502"><ele>129.0</ele><time>2026-04-30T07:44:56.002Z</time></trkpt><trkpt lat="40.4347560672358" lon="9.720833089180216"><ele>127.00000000000001</ele><time>2026-04-30T07:44:58.002Z</time></trkpt><trkpt lat="40.434797954892446" lon="9.720719273601366"><ele>125.0</ele><time>2026-04-30T07:45:00.002Z</time></trkpt><trkpt lat="40.43481686391899" lon="9.720640166158447"><ele>123.0</ele><time>2026-04-30T07:45:01.002Z</time></trkpt><trkpt lat="40.434824972462" lon="9.720556099255251"><ele>123.0</ele><time>2026-04-30T07:45:02.002Z</time></trkpt><trkpt lat="40.43483394226016" lon="9.720405200182752"><ele>123.0</ele><time>2026-04-30T07:45:03.002Z</time></trkpt><trkpt lat="40.434805713682536" lon="9.720248105638028"><ele>123.0</ele><time>2026-04-30T07:45:04.002Z</time></trkpt><trkpt lat="40.43475130164446" lon="9.720076767635888"><ele>123.0</ele><time>2026-04-30T07:45:05.002Z</time></trkpt><trkpt lat="40.434698638393755" lon="9.719978568794286"><ele>122.5</ele><time>2026-04-30T07:45:06.002Z</time></trkpt><trkpt lat="40.43460410758666" lon="9.71978028105501"><ele>122.0</ele><time>2026-04-30T07:45:08.002Z</time></trkpt><trkpt lat="40.43465253109854" lon="9.719644706614282"><ele>121.5</ele><time>2026-04-30T07:45:09.002Z</time></trkpt><trkpt lat="40.43470244148945" lon="9.719501355086125"><ele>121.0</ele><time>2026-04-30T07:45:10.002Z</time></trkpt><trkpt lat="40.43473162981757" lon="9.719347376512738"><ele>121.0</ele><time>2026-04-30T07:45:11.002Z</time></trkpt><trkpt lat="40.43465728089116" lon="9.719518168170636"><ele>121.0</ele><time>2026-04-30T07:45:12.002Z</time></trkpt><trkpt lat="40.43469342501732" lon="9.719408235444032"><ele>121.0</ele><time>2026-04-30T07:45:13.002Z</time></trkpt><trkpt lat="40.43472291280905" lon="9.719282265514343"><ele>121.0</ele><time>2026-04-30T07:45:14.003Z</time></trkpt><trkpt lat="40.43474716373232" lon="9.719154438712879"><ele>121.0</ele><time>2026-04-30T07:45:15.003Z</time></trkpt><trkpt lat="40.43476437377154" lon="9.719029079983605"><ele>120.4</ele><time>2026-04-30T07:45:16.003Z</time></trkpt><trkpt lat="40.43477202914994" lon="9.718892779587994"><ele>119.8</ele><time>2026-04-30T07:45:17.003Z</time></trkpt><trkpt lat="40.43477475939278" lon="9.71874974197883"><ele>119.20000000000002</ele><time>2026-04-30T07:45:18.003Z</time></trkpt><trkpt lat="40.43478182637425" lon="9.718620703306161"><ele>118.60000000000001</ele><time>2026-04-30T07:45:19.003Z</time></trkpt><trkpt lat="40.43478419599203" lon="9.718516724070335"><ele>118.0</ele><time>2026-04-30T07:45:20.003Z</time></trkpt><trkpt lat="40.43476565219886" lon="9.718428729501827"><ele>117.60000000000001</ele><time>2026-04-30T07:45:21.003Z</time></trkpt><trkpt lat="40.43473815925793" lon="9.718331415669843"><ele>117.20000000000002</ele><time>2026-04-30T07:45:22.003Z</time></trkpt><trkpt lat="40.43471617892282" lon="9.718220802975607"><ele>116.8</ele><time>2026-04-30T07:45:23.003Z</time></trkpt><trkpt lat="40.434731507544456" lon="9.718099879999805"><ele>116.4</ele><time>2026-04-30T07:45:24.003Z</time></trkpt><trkpt lat="40.43473578841611" lon="9.7179616775261"><ele>116.0</ele><time>2026-04-30T07:45:25.003Z</time></trkpt><trkpt lat="40.43474455603368" lon="9.717810823340754"><ele>116.19999999999999</ele><time>2026-04-30T07:45:26.003Z</time></trkpt><trkpt lat="40.43475800473493" lon="9.717662264339404"><ele>116.39999999999999</ele><time>2026-04-30T07:45:27.003Z</time></trkpt><trkpt lat="40.43478632901006" lon="9.717524423037807"><ele>116.6</ele><time>2026-04-30T07:45:28.003Z</time></trkpt><trkpt lat="40.43482548360509" lon="9.717401441811619"><ele>116.8</ele><time>2026-04-30T07:45:29.003Z</time></trkpt><trkpt lat="40.43487344467432" lon="9.71730726615929"><ele>117.0</ele><time>2026-04-30T07:45:30.003Z</time></trkpt><trkpt lat="40.434926083783" lon="9.717253802644507"><ele>117.0</ele><time>2026-04-30T07:45:31.003Z</time></trkpt><trkpt lat="40.43499491551898" lon="9.717184497474928"><ele>116.99999999999999</ele><time>2026-04-30T07:45:32.003Z</time></trkpt><trkpt lat="40.43505922258723" lon="9.7170934048207"><ele>116.99999999999999</ele><time>2026-04-30T07:45:33.003Z</time></trkpt><trkpt lat="40.43512117547337" lon="9.716980476520357"><ele>117.0</ele><time>2026-04-30T07:45:34.003Z</time></trkpt><trkpt lat="40.43521034170223" lon="9.716867855393875"><ele>117.0</ele><time>2026-04-30T07:45:35.003Z</time></trkpt><trkpt lat="40.435265703468524" lon="9.716724190821424"><ele>117.33333333333333</ele><time>2026-04-30T07:45:36.003Z</time></trkpt><trkpt lat="40.43533011796507" lon="9.716598305881114"><ele>117.66666666666666</ele><time>2026-04-30T07:45:37.003Z</time></trkpt><trkpt lat="40.43538971730503" lon="9.716487381210987"><ele>118.0</ele><time>2026-04-30T07:45:38.003Z</time></trkpt><trkpt lat="40.435447425544375" lon="9.716413247198451"><ele>118.33333333333333</ele><time>2026-04-30T07:45:39.003Z</time></trkpt><trkpt lat="40.43548869090958" lon="9.716349608707954"><ele>118.66666666666666</ele><time>2026-04-30T07:45:40.003Z</time></trkpt><trkpt lat="40.43550749994126" lon="9.716264286545965"><ele>119.0</ele><time>2026-04-30T07:46:00.003Z</time></trkpt><trkpt lat="40.435543839434494" lon="9.716147590541441"><ele>119.66666666666666</ele><time>2026-04-30T07:46:59.004Z</time></trkpt><trkpt lat="40.43558279516567" lon="9.716028403627675"><ele>120.33333333333333</ele><time>2026-04-30T07:47:01.004Z</time></trkpt><trkpt lat="40.435619030381226" lon="9.715956046926449"><ele>121.0</ele><time>2026-04-30T07:47:02.004Z</time></trkpt><trkpt lat="40.43564268150597" lon="9.715870183702963"><ele>121.66666666666666</ele><time>2026-04-30T07:47:03.004Z</time></trkpt><trkpt lat="40.43566502808185" lon="9.715772193358392"><ele>122.33333333333333</ele><time>2026-04-30T07:47:04.004Z</time></trkpt><trkpt lat="40.43568075804983" lon="9.715674218555673"><ele>123.0</ele><time>2026-04-30T07:47:05.004Z</time></trkpt><trkpt lat="40.43569369328241" lon="9.715585102057103"><ele>123.00000000000001</ele><time>2026-04-30T07:47:06.004Z</time></trkpt><trkpt lat="40.43569540362776" lon="9.715499118199405"><ele>123.0</ele><time>2026-04-30T07:47:07.004Z</time></trkpt><trkpt lat="40.43567660098499" lon="9.71541963860004"><ele>123.00000000000001</ele><time>2026-04-30T07:47:08.004Z</time></trkpt><trkpt lat="40.4356428424594" lon="9.715339924815346"><ele>123.00000000000001</ele><time>2026-04-30T07:47:09.004Z</time></trkpt><trkpt lat="40.435563321778055" lon="9.715279004464467"><ele>123.0</ele><time>2026-04-30T07:47:10.004Z</time></trkpt><trkpt lat="40.435530400425286" lon="9.715195568830426"><ele>123.00000000000001</ele><time>2026-04-30T07:47:11.004Z</time></trkpt><trkpt lat="40.43554236202389" lon="9.715102918879145"><ele>123.00000000000001</ele><time>2026-04-30T07:47:12.004Z</time></trkpt><trkpt lat="40.43553611061428" lon="9.71500466639479"><ele>123.83333333333333</ele><time>2026-04-30T07:47:13.004Z</time></trkpt><trkpt lat="40.435510701262395" lon="9.714877230499217"><ele>124.66666666666666</ele><time>2026-04-30T07:47:14.004Z</time></trkpt><trkpt lat="40.435488350636724" lon="9.714760773903572"><ele>125.5</ele><time>2026-04-30T07:47:15.004Z</time></trkpt><trkpt lat="40.435457884080485" lon="9.714644788149778"><ele>126.33333333333333</ele><time>2026-04-30T07:47:16.004Z</time></trkpt><trkpt lat="40.435458134104366" lon="9.714537777172241"><ele>127.16666666666666</ele><time>2026-04-30T07:47:17.004Z</time></trkpt><trkpt lat="40.4354974874519" lon="9.714458093051565"><ele>128.0</ele><time>2026-04-30T07:47:18.004Z</time></trkpt><trkpt lat="40.43551943400428" lon="9.71436748868659"><ele>128.0</ele><time>2026-04-30T07:47:19.004Z</time></trkpt><trkpt lat="40.435573598888965" lon="9.714301889691042"><ele>127.99999999999999</ele><time>2026-04-30T07:47:20.004Z</time></trkpt><trkpt lat="40.43563853993392" lon="9.714252226147128"><ele>128.0</ele><time>2026-04-30T07:47:21.004Z</time></trkpt><trkpt lat="40.43570297991614" lon="9.714209824442904"><ele>128.0</ele><time>2026-04-30T07:47:22.004Z</time></trkpt><trkpt lat="40.43576687027926" lon="9.714188494099231"><ele>127.99999999999999</ele><time>2026-04-30T07:47:23.004Z</time></trkpt><trkpt lat="40.43583775358623" lon="9.714169007501619"><ele>128.0</ele><time>2026-04-30T07:47:24.004Z</time></trkpt><trkpt lat="40.43590625539308" lon="9.714163223509217"><ele>128.0</ele><time>2026-04-30T07:47:25.004Z</time></trkpt><trkpt lat="40.435975750840136" lon="9.71421716702185"><ele>128.0</ele><time>2026-04-30T07:47:26.004Z</time></trkpt><trkpt lat="40.43605422606375" lon="9.714232828389791"><ele>128.0</ele><time>2026-04-30T07:47:27.004Z</time></trkpt><trkpt lat="40.43612252435" lon="9.714225060423304"><ele>128.0</ele><time>2026-04-30T07:47:28.004Z</time></trkpt><trkpt lat="40.436227774608774" lon="9.714181103065942"><ele>128.0</ele><time>2026-04-30T07:47:30.004Z</time></trkpt><trkpt lat="40.43625926395438" lon="9.714067007693178"><ele>128.0</ele><time>2026-04-30T07:47:32.004Z</time></trkpt><trkpt lat="40.43625791884707" lon="9.713885583571233"><ele>128.0</ele><time>2026-04-30T07:47:34.004Z</time></trkpt><trkpt lat="40.43623255968648" lon="9.713771029464157"><ele>128.0</ele><time>2026-04-30T07:47:35.004Z</time></trkpt><trkpt lat="40.43619192160511" lon="9.713638263633445"><ele>128.0</ele><time>2026-04-30T07:47:36.004Z</time></trkpt><trkpt lat="40.436138897219145" lon="9.713519397197809"><ele>128.0</ele><time>2026-04-30T07:47:37.004Z</time></trkpt><trkpt lat="40.436130551252475" lon="9.713382950173914"><ele>128.0</ele><time>2026-04-30T07:47:38.004Z</time></trkpt><trkpt lat="40.43608708147003" lon="9.713244580059738"><ele>127.80000000000001</ele><time>2026-04-30T07:47:39.004Z</time></trkpt><trkpt lat="40.43605933892727" lon="9.713101874851924"><ele>127.60000000000001</ele><time>2026-04-30T07:47:40.004Z</time></trkpt><trkpt lat="40.436036826393206" lon="9.71296074620433"><ele>127.39999999999999</ele><time>2026-04-30T07:47:41.004Z</time></trkpt><trkpt lat="40.43600993767655" lon="9.712820630664046"><ele>127.19999999999999</ele><time>2026-04-30T07:47:42.004Z</time></trkpt><trkpt lat="40.43597880421245" lon="9.712688644298236"><ele>127.0</ele><time>2026-04-30T07:47:43.004Z</time></trkpt><trkpt lat="40.43594045693245" lon="9.712564263641074"><ele>126.6</ele><time>2026-04-30T07:47:44.004Z</time></trkpt><trkpt lat="40.43590157209" lon="9.712434270590117"><ele>126.19999999999999</ele><time>2026-04-30T07:47:45.004Z</time></trkpt><trkpt lat="40.435871285422955" lon="9.712311101802218"><ele>125.8</ele><time>2026-04-30T07:47:46.004Z</time></trkpt><trkpt lat="40.43584021680696" lon="9.712181611627257"><ele>125.4</ele><time>2026-04-30T07:47:47.004Z</time></trkpt><trkpt lat="40.435810971405054" lon="9.71205863479135"><ele>125.0</ele><time>2026-04-30T07:47:48.004Z</time></trkpt><trkpt lat="40.43578939577864" lon="9.71194723438073"><ele>124.85714285714286</ele><time>2026-04-30T07:47:49.004Z</time></trkpt><trkpt lat="40.4357587429166" lon="9.711846367654474"><ele>124.71428571428572</ele><time>2026-04-30T07:47:50.004Z</time></trkpt><trkpt lat="40.435735429257605" lon="9.711757703831523"><ele>124.57142857142858</ele><time>2026-04-30T07:47:51.004Z</time></trkpt><trkpt lat="40.43569533143587" lon="9.711685455609526"><ele>124.42857142857143</ele><time>2026-04-30T07:47:52.004Z</time></trkpt><trkpt lat="40.4356498670097" lon="9.711619647789464"><ele>124.2857142857143</ele><time>2026-04-30T07:47:53.004Z</time></trkpt><trkpt lat="40.435609772671164" lon="9.711532323226175"><ele>124.14285714285715</ele><time>2026-04-30T07:47:55.004Z</time></trkpt><trkpt lat="40.43560892163677" lon="9.711449582135286"><ele>124.0</ele><time>2026-04-30T07:47:59.004Z</time></trkpt><trkpt lat="40.435612867458254" lon="9.711320759852244"><ele>124.00000000000001</ele><time>2026-04-30T07:48:02.004Z</time></trkpt><trkpt lat="40.435617380454254" lon="9.711208173048096"><ele>124.0</ele><time>2026-04-30T07:48:05.004Z</time></trkpt><trkpt lat="40.43562040545935" lon="9.711096803080933"><ele>124.0</ele><time>2026-04-30T07:48:07.004Z</time></trkpt><trkpt lat="40.43567130085368" lon="9.711034339219488"><ele>124.0</ele><time>2026-04-30T07:48:08.004Z</time></trkpt><trkpt lat="40.4356933680304" lon="9.710955415128403"><ele>124.00000000000001</ele><time>2026-04-30T07:48:09.004Z</time></trkpt><trkpt lat="40.43571651290493" lon="9.710872633335235"><ele>124.0</ele><time>2026-04-30T07:48:10.004Z</time></trkpt><trkpt lat="40.435745996801884" lon="9.710728812456573"><ele>124.6</ele><time>2026-04-30T07:48:12.004Z</time></trkpt><trkpt lat="40.43575735260053" lon="9.71063074624468"><ele>125.2</ele><time>2026-04-30T07:48:14.004Z</time></trkpt><trkpt lat="40.43575212181071" lon="9.71045713118892"><ele>125.79999999999998</ele><time>2026-04-30T07:48:16.004Z</time></trkpt><trkpt lat="40.43575701058665" lon="9.710335807011482"><ele>126.39999999999999</ele><time>2026-04-30T07:48:17.004Z</time></trkpt><trkpt lat="40.43576341966313" lon="9.710221523055456"><ele>127.0</ele><time>2026-04-30T07:48:18.004Z</time></trkpt><trkpt lat="40.43578725672288" lon="9.710097068722478"><ele>127.33333333333334</ele><time>2026-04-30T07:48:19.004Z</time></trkpt><trkpt lat="40.435847225571955" lon="9.710018469223398"><ele>127.66666666666667</ele><time>2026-04-30T07:48:20.004Z</time></trkpt><trkpt lat="40.435845720442" lon="9.709911164581618"><ele>128.0</ele><time>2026-04-30T07:48:21.004Z</time></trkpt><trkpt lat="40.4358581546151" lon="9.709800156037488"><ele>128.33333333333334</ele><time>2026-04-30T07:48:22.004Z</time></trkpt><trkpt lat="40.43587995783294" lon="9.709693690500279"><ele>128.66666666666666</ele><time>2026-04-30T07:48:23.004Z</time></trkpt><trkpt lat="40.43590703851234" lon="9.709587856342084"><ele>129.0</ele><time>2026-04-30T07:48:24.004Z</time></trkpt><trkpt lat="40.43593211565758" lon="9.709471691109226"><ele>129.8</ele><time>2026-04-30T07:48:25.004Z</time></trkpt><trkpt lat="40.435961783639925" lon="9.709360077745744"><ele>130.60000000000002</ele><time>2026-04-30T07:48:26.004Z</time></trkpt><trkpt lat="40.435995017973276" lon="9.709247357205134"><ele>131.4</ele><time>2026-04-30T07:48:27.004Z</time></trkpt><trkpt lat="40.43602646628236" lon="9.709126646468144"><ele>132.20000000000002</ele><time>2026-04-30T07:48:28.004Z</time></trkpt><trkpt lat="40.4360628826911" lon="9.709000169480971"><ele>133.0</ele><time>2026-04-30T07:48:29.005Z</time></trkpt><trkpt lat="40.43609634059151" lon="9.708869313072594"><ele>133.0</ele><time>2026-04-30T07:48:30.005Z</time></trkpt><trkpt lat="40.43612954129167" lon="9.708745357357692"><ele>133.0</ele><time>2026-04-30T07:48:31.005Z</time></trkpt><trkpt lat="40.43615202632942" lon="9.708619357406121"><ele>133.0</ele><time>2026-04-30T07:48:32.005Z</time></trkpt><trkpt lat="40.436168938180714" lon="9.70850024072603"><ele>133.0</ele><time>2026-04-30T07:48:33.005Z</time></trkpt><trkpt lat="40.43618022602491" lon="9.708378828435594"><ele>133.0</ele><time>2026-04-30T07:48:34.005Z</time></trkpt><trkpt lat="40.4361851082929" lon="9.708276650076412"><ele>133.4</ele><time>2026-04-30T07:48:35.005Z</time></trkpt><trkpt lat="40.43617778271505" lon="9.708175094023035"><ele>133.8</ele><time>2026-04-30T07:48:36.005Z</time></trkpt><trkpt lat="40.436179271018034" lon="9.708054918789005"><ele>134.2</ele><time>2026-04-30T07:48:37.005Z</time></trkpt><trkpt lat="40.436186654752134" lon="9.707917556853543"><ele>134.6</ele><time>2026-04-30T07:48:38.005Z</time></trkpt><trkpt lat="40.43619776645511" lon="9.707747176133019"><ele>135.0</ele><time>2026-04-30T07:48:39.005Z</time></trkpt><trkpt lat="40.436227761014905" lon="9.70758248567966"><ele>135.66666666666666</ele><time>2026-04-30T07:48:40.005Z</time></trkpt><trkpt lat="40.43624685421637" lon="9.70744438433914"><ele>136.33333333333331</ele><time>2026-04-30T07:48:41.005Z</time></trkpt><trkpt lat="40.43616458821009" lon="9.707403280354495"><ele>137.0</ele><time>2026-04-30T07:48:42.005Z</time></trkpt><trkpt lat="40.43630509955025" lon="9.707118057519413"><ele>130.0</ele><time>2026-04-30T07:48:43.005Z</time></trkpt><trkpt lat="40.43654990552742" lon="9.707619937666323"><ele>130.0</ele><time>2026-04-30T07:48:44.005Z</time></trkpt><trkpt lat="40.43661176175454" lon="9.707551883331144"><ele>130.0</ele><time>2026-04-30T07:48:45.005Z</time></trkpt><trkpt lat="40.43667592411488" lon="9.707502684965082"><ele>130.0</ele><time>2026-04-30T07:48:46.005Z</time></trkpt><trkpt lat="40.4367519532414" lon="9.707465211256673"><ele>130.0</ele><time>2026-04-30T07:48:47.005Z</time></trkpt><trkpt lat="40.43683082838594" lon="9.707439605477282"><ele>130.0</ele><time>2026-04-30T07:48:48.005Z</time></trkpt><trkpt lat="40.43691916180288" lon="9.707412066116328"><ele>130.0</ele><time>2026-04-30T07:48:49.005Z</time></trkpt><trkpt lat="40.43701382685585" lon="9.707380457217921"><ele>130.0</ele><time>2026-04-30T07:48:50.005Z</time></trkpt><trkpt lat="40.43711744350447" lon="9.70734733999918"><ele>130.0</ele><time>2026-04-30T07:48:51.005Z</time></trkpt><trkpt lat="40.43722346623235" lon="9.707340203627002"><ele>130.0</ele><time>2026-04-30T07:48:52.005Z</time></trkpt><trkpt lat="40.43733073751964" lon="9.707299628703122"><ele>130.0</ele><time>2026-04-30T07:48:53.005Z</time></trkpt><trkpt lat="40.43744545535524" lon="9.707277051275478"><ele>130.0</ele><time>2026-04-30T07:48:54.005Z</time></trkpt><trkpt lat="40.437559675714446" lon="9.70725409932276"><ele>130.0</ele><time>2026-04-30T07:48:55.005Z</time></trkpt><trkpt lat="40.43767624430015" lon="9.707227948069143"><ele>130.0</ele><time>2026-04-30T07:48:56.005Z</time></trkpt><trkpt lat="40.437793627123796" lon="9.707190317893119"><ele>130.0</ele><time>2026-04-30T07:48:57.005Z</time></trkpt><trkpt lat="40.43790981638759" lon="9.70715977417539"><ele>130.0</ele><time>2026-04-30T07:48:58.005Z</time></trkpt><trkpt lat="40.43803082257011" lon="9.707123704718068"><ele>130.0</ele><time>2026-04-30T07:48:59.005Z</time></trkpt><trkpt lat="40.438149929425045" lon="9.707077457376808"><ele>130.0</ele><time>2026-04-30T07:49:00.005Z</time></trkpt><trkpt lat="40.438272194106055" lon="9.707028476673365"><ele>130.0</ele><time>2026-04-30T07:49:01.005Z</time></trkpt><trkpt lat="40.43838930572854" lon="9.706990466381535"><ele>130.0</ele><time>2026-04-30T07:49:02.005Z</time></trkpt><trkpt lat="40.43850867313347" lon="9.70695140016623"><ele>130.25</ele><time>2026-04-30T07:49:03.005Z</time></trkpt><trkpt lat="40.438624430409135" lon="9.706908445142762"><ele>130.5</ele><time>2026-04-30T07:49:04.005Z</time></trkpt><trkpt lat="40.43874431641597" lon="9.70686731788456"><ele>130.75</ele><time>2026-04-30T07:49:05.005Z</time></trkpt><trkpt lat="40.43886070776157" lon="9.706836695448409"><ele>131.0</ele><time>2026-04-30T07:49:06.005Z</time></trkpt><trkpt lat="40.43897263596294" lon="9.70679605385412"><ele>131.5</ele><time>2026-04-30T07:49:07.005Z</time></trkpt><trkpt lat="40.43908994058623" lon="9.70675332435244"><ele>132.0</ele><time>2026-04-30T07:49:08.005Z</time></trkpt><trkpt lat="40.4392061898096" lon="9.70672286502081"><ele>132.5</ele><time>2026-04-30T07:49:09.005Z</time></trkpt><trkpt lat="40.43932262090831" lon="9.706697130472055"><ele>133.0</ele><time>2026-04-30T07:49:10.005Z</time></trkpt><trkpt lat="40.43943161548334" lon="9.706665377972644"><ele>133.0</ele><time>2026-04-30T07:49:11.005Z</time></trkpt><trkpt lat="40.43953986400899" lon="9.706646261704675"><ele>133.0</ele><time>2026-04-30T07:49:12.005Z</time></trkpt><trkpt lat="40.43965059022206" lon="9.706620611566109"><ele>133.0</ele><time>2026-04-30T07:49:13.005Z</time></trkpt><trkpt lat="40.439768648317575" lon="9.706579486618642"><ele>133.0</ele><time>2026-04-30T07:49:14.005Z</time></trkpt><trkpt lat="40.43989548397826" lon="9.706536455108294"><ele>133.75</ele><time>2026-04-30T07:49:15.005Z</time></trkpt><trkpt lat="40.440027755807414" lon="9.706495660418447"><ele>134.5</ele><time>2026-04-30T07:49:16.005Z</time></trkpt><trkpt lat="40.44015100314788" lon="9.706463628319357"><ele>135.25</ele><time>2026-04-30T07:49:17.005Z</time></trkpt><trkpt lat="40.440270886335064" lon="9.706429473001034"><ele>136.0</ele><time>2026-04-30T07:49:18.005Z</time></trkpt><trkpt lat="40.440393626381514" lon="9.706402319436085"><ele>136.8</ele><time>2026-04-30T07:49:19.005Z</time></trkpt><trkpt lat="40.44050239138457" lon="9.706381117587208"><ele>137.6</ele><time>2026-04-30T07:49:20.005Z</time></trkpt><trkpt lat="40.44061285714671" lon="9.706363294329316"><ele>138.4</ele><time>2026-04-30T07:49:21.005Z</time></trkpt><trkpt lat="40.44071470249078" lon="9.706342049619925"><ele>139.2</ele><time>2026-04-30T07:49:22.005Z</time></trkpt><trkpt lat="40.44081484554391" lon="9.706367410183004"><ele>140.0</ele><time>2026-04-30T07:49:23.005Z</time></trkpt><trkpt lat="40.44088544184906" lon="9.706388109705582"><ele>140.0</ele><time>2026-04-30T07:49:24.005Z</time></trkpt><trkpt lat="40.44098974611363" lon="9.706485602170316"><ele>140.0</ele><time>2026-04-30T07:49:26.005Z</time></trkpt><trkpt lat="40.44106600685103" lon="9.706536423967007"><ele>140.0</ele><time>2026-04-30T07:49:27.005Z</time></trkpt><trkpt lat="40.44114282243655" lon="9.706592544461639"><ele>140.0</ele><time>2026-04-30T07:49:28.005Z</time></trkpt><trkpt lat="40.441236544222576" lon="9.706638863109326"><ele>140.0</ele><time>2026-04-30T07:49:29.005Z</time></trkpt><trkpt lat="40.44132656271824" lon="9.706669470297932"><ele>140.8</ele><time>2026-04-30T07:49:30.005Z</time></trkpt><trkpt lat="40.44142634178797" lon="9.706666924028935"><ele>141.6</ele><time>2026-04-30T07:49:31.005Z</time></trkpt><trkpt lat="40.441516665272104" lon="9.70662437876298"><ele>142.4</ele><time>2026-04-30T07:49:32.005Z</time></trkpt><trkpt lat="40.44160358534295" lon="9.706570737717689"><ele>143.2</ele><time>2026-04-30T07:49:33.005Z</time></trkpt><trkpt lat="40.441704889364686" lon="9.706510589624319"><ele>144.0</ele><time>2026-04-30T07:49:34.005Z</time></trkpt><trkpt lat="40.44181580945281" lon="9.70645665554145"><ele>144.0</ele><time>2026-04-30T07:49:35.005Z</time></trkpt><trkpt lat="40.441931871378394" lon="9.706398930744538"><ele>144.0</ele><time>2026-04-30T07:49:36.005Z</time></trkpt><trkpt lat="40.44205032312166" lon="9.706347548629505"><ele>144.0</ele><time>2026-04-30T07:49:37.005Z</time></trkpt><trkpt lat="40.44216655824151" lon="9.706314820175173"><ele>144.0</ele><time>2026-04-30T07:49:38.005Z</time></trkpt><trkpt lat="40.44228411403126" lon="9.706296146809866"><ele>143.8</ele><time>2026-04-30T07:49:39.005Z</time></trkpt><trkpt lat="40.442380758963786" lon="9.706275334067072"><ele>143.60000000000002</ele><time>2026-04-30T07:49:40.005Z</time></trkpt><trkpt lat="40.44246140968249" lon="9.70624313534186"><ele>143.4</ele><time>2026-04-30T07:49:41.005Z</time></trkpt><trkpt lat="40.44254656226097" lon="9.706188453528455"><ele>143.20000000000002</ele><time>2026-04-30T07:49:42.005Z</time></trkpt><trkpt lat="40.44263353932415" lon="9.706114983726579"><ele>143.0</ele><time>2026-04-30T07:49:43.005Z</time></trkpt><trkpt lat="40.442729442997106" lon="9.706031135595088"><ele>143.75</ele><time>2026-04-30T07:49:44.005Z</time></trkpt><trkpt lat="40.44282793434039" lon="9.705950473698607"><ele>144.5</ele><time>2026-04-30T07:49:45.005Z</time></trkpt><trkpt lat="40.44293687802237" lon="9.70588119988586"><ele>145.25</ele><time>2026-04-30T07:49:46.005Z</time></trkpt><trkpt lat="40.44305012283493" lon="9.705808588222729"><ele>146.0</ele><time>2026-04-30T07:49:47.005Z</time></trkpt><trkpt lat="40.443176164777135" lon="9.705764967305846"><ele>146.0</ele><time>2026-04-30T07:49:48.005Z</time></trkpt><trkpt lat="40.443305221571634" lon="9.705692142765825"><ele>146.0</ele><time>2026-04-30T07:49:49.005Z</time></trkpt><trkpt lat="40.443427674034155" lon="9.705613121767783"><ele>146.0</ele><time>2026-04-30T07:49:50.005Z</time></trkpt><trkpt lat="40.44354940518581" lon="9.705527039553022"><ele>146.0</ele><time>2026-04-30T07:49:51.005Z</time></trkpt><trkpt lat="40.44366278543203" lon="9.70545258195822"><ele>146.0</ele><time>2026-04-30T07:49:52.005Z</time></trkpt><trkpt lat="40.443768110109616" lon="9.705389573152635"><ele>146.0</ele><time>2026-04-30T07:49:53.005Z</time></trkpt><trkpt lat="40.44386609950966" lon="9.705316521598782"><ele>146.0</ele><time>2026-04-30T07:49:54.005Z</time></trkpt><trkpt lat="40.44396002849806" lon="9.705248877707202"><ele>146.0</ele><time>2026-04-30T07:49:55.005Z</time></trkpt><trkpt lat="40.444048436953956" lon="9.70521373594997"><ele>146.0</ele><time>2026-04-30T07:49:56.005Z</time></trkpt><trkpt lat="40.444146428175635" lon="9.70518646347179"><ele>146.2</ele><time>2026-04-30T07:49:57.005Z</time></trkpt><trkpt lat="40.444235044735585" lon="9.705147188196312"><ele>146.39999999999998</ele><time>2026-04-30T07:49:58.005Z</time></trkpt><trkpt lat="40.44431476214494" lon="9.70508687363415"><ele>146.6</ele><time>2026-04-30T07:49:59.005Z</time></trkpt><trkpt lat="40.44439129874686" lon="9.705012472427786"><ele>146.79999999999998</ele><time>2026-04-30T07:50:00.006Z</time></trkpt><trkpt lat="40.44447285911557" lon="9.704914236333112"><ele>147.0</ele><time>2026-04-30T07:50:01.006Z</time></trkpt><trkpt lat="40.44455007569538" lon="9.704820892921761"><ele>147.0</ele><time>2026-04-30T07:50:02.006Z</time></trkpt><trkpt lat="40.444613517957556" lon="9.70474120344107"><ele>147.0</ele><time>2026-04-30T07:50:03.006Z</time></trkpt><trkpt lat="40.444676901599436" lon="9.70468686904099"><ele>147.0</ele><time>2026-04-30T07:50:05.006Z</time></trkpt><trkpt lat="40.4447998936105" lon="9.704789681397862"><ele>147.0</ele><time>2026-04-30T07:50:08.006Z</time></trkpt><trkpt lat="40.44490232665876" lon="9.704836488691578"><ele>147.0</ele><time>2026-04-30T07:50:09.006Z</time></trkpt><trkpt lat="40.44500077223506" lon="9.704910974437594"><ele>147.5</ele><time>2026-04-30T07:50:10.006Z</time></trkpt><trkpt lat="40.44510729648933" lon="9.704986292276418"><ele>148.0</ele><time>2026-04-30T07:50:11.006Z</time></trkpt><trkpt lat="40.44522062115784" lon="9.705063481566542"><ele>148.5</ele><time>2026-04-30T07:50:12.006Z</time></trkpt><trkpt lat="40.44533493283181" lon="9.705143562551363"><ele>149.0</ele><time>2026-04-30T07:50:13.006Z</time></trkpt><trkpt lat="40.44545118609302" lon="9.705220588309702"><ele>149.0</ele><time>2026-04-30T07:50:14.006Z</time></trkpt><trkpt lat="40.445567828393585" lon="9.705294736390558"><ele>149.0</ele><time>2026-04-30T07:50:15.006Z</time></trkpt><trkpt lat="40.44568249228805" lon="9.705373438560693"><ele>149.0</ele><time>2026-04-30T07:50:16.006Z</time></trkpt><trkpt lat="40.44579503067951" lon="9.705444570337013"><ele>149.0</ele><time>2026-04-30T07:50:17.006Z</time></trkpt><trkpt lat="40.445912501743244" lon="9.705523345520788"><ele>149.0</ele><time>2026-04-30T07:50:18.006Z</time></trkpt><trkpt lat="40.44602392726565" lon="9.705608662430187"><ele>149.0</ele><time>2026-04-30T07:50:19.006Z</time></trkpt><trkpt lat="40.44613055006835" lon="9.705697403165079"><ele>149.0</ele><time>2026-04-30T07:50:20.006Z</time></trkpt><trkpt lat="40.446239132665994" lon="9.705803606285947"><ele>149.0</ele><time>2026-04-30T07:50:21.006Z</time></trkpt><trkpt lat="40.446343826996404" lon="9.705925572084642"><ele>150.0</ele><time>2026-04-30T07:50:22.006Z</time></trkpt><trkpt lat="40.44643996547437" lon="9.706062510818231"><ele>151.0</ele><time>2026-04-30T07:50:23.006Z</time></trkpt><trkpt lat="40.44653524841909" lon="9.706201937880245"><ele>152.0</ele><time>2026-04-30T07:50:24.006Z</time></trkpt><trkpt lat="40.44662985845959" lon="9.706345107042273"><ele>153.0</ele><time>2026-04-30T07:50:25.006Z</time></trkpt><trkpt lat="40.44672388119977" lon="9.706490417383495"><ele>153.0</ele><time>2026-04-30T07:50:26.006Z</time></trkpt><trkpt lat="40.446821884916474" lon="9.70662692673662"><ele>153.0</ele><time>2026-04-30T07:50:27.006Z</time></trkpt><trkpt lat="40.44693066837357" lon="9.706747678971666"><ele>153.0</ele><time>2026-04-30T07:50:28.006Z</time></trkpt><trkpt lat="40.44704932131649" lon="9.706858983376527"><ele>153.0</ele><time>2026-04-30T07:50:29.006Z</time></trkpt><trkpt lat="40.44717736997134" lon="9.70696516183887"><ele>153.66666666666666</ele><time>2026-04-30T07:50:30.006Z</time></trkpt><trkpt lat="40.447310610293364" lon="9.707071361284715"><ele>154.33333333333331</ele><time>2026-04-30T07:50:31.006Z</time></trkpt><trkpt lat="40.44744425775972" lon="9.707179233844244"><ele>155.0</ele><time>2026-04-30T07:50:32.006Z</time></trkpt><trkpt lat="40.44758640787142" lon="9.707294947879799"><ele>155.0</ele><time>2026-04-30T07:50:33.006Z</time></trkpt><trkpt lat="40.44773057598941" lon="9.70741530433033"><ele>155.0</ele><time>2026-04-30T07:50:34.006Z</time></trkpt><trkpt lat="40.44787501390477" lon="9.707535864142473"><ele>155.0</ele><time>2026-04-30T07:50:35.006Z</time></trkpt><trkpt lat="40.44801971609945" lon="9.707661194366851"><ele>155.66666666666666</ele><time>2026-04-30T07:50:36.006Z</time></trkpt><trkpt lat="40.44816780412239" lon="9.707792029040677"><ele>156.33333333333334</ele><time>2026-04-30T07:50:37.006Z</time></trkpt><trkpt lat="40.44831294005392" lon="9.707919796593192"><ele>157.0</ele><time>2026-04-30T07:50:38.006Z</time></trkpt><trkpt lat="40.44846261878413" lon="9.708048084017877"><ele>157.0</ele><time>2026-04-30T07:50:39.006Z</time></trkpt><trkpt lat="40.44861788894117" lon="9.708176411385327"><ele>157.0</ele><time>2026-04-30T07:50:40.006Z</time></trkpt><trkpt lat="40.44876738163675" lon="9.708300318650787"><ele>157.0</ele><time>2026-04-30T07:50:41.006Z</time></trkpt><trkpt lat="40.4489157656022" lon="9.708422279010666"><ele>159.0</ele><time>2026-04-30T07:50:42.006Z</time></trkpt><trkpt lat="40.44905755453692" lon="9.708534308058002"><ele>161.0</ele><time>2026-04-30T07:50:43.006Z</time></trkpt><trkpt lat="40.449198336393586" lon="9.708656464626614"><ele>163.0</ele><time>2026-04-30T07:50:44.006Z</time></trkpt><trkpt lat="40.44934028647372" lon="9.708768273285118"><ele>163.0</ele><time>2026-04-30T07:50:45.006Z</time></trkpt><trkpt lat="40.449480539222726" lon="9.708855268038949"><ele>163.0</ele><time>2026-04-30T07:50:46.006Z</time></trkpt><trkpt lat="40.44961360691492" lon="9.708913815205579"><ele>163.0</ele><time>2026-04-30T07:50:47.006Z</time></trkpt><trkpt lat="40.44974751531221" lon="9.708943634442985"><ele>163.0</ele><time>2026-04-30T07:50:48.006Z</time></trkpt><trkpt lat="40.44988555462901" lon="9.708948228743877"><ele>164.66666666666669</ele><time>2026-04-30T07:50:49.006Z</time></trkpt><trkpt lat="40.45003212419982" lon="9.708939267741501"><ele>166.33333333333334</ele><time>2026-04-30T07:50:50.006Z</time></trkpt><trkpt lat="40.45018139890326" lon="9.708918937891838"><ele>168.0</ele><time>2026-04-30T07:50:51.006Z</time></trkpt><trkpt lat="40.45033587978283" lon="9.708897802382634"><ele>168.0</ele><time>2026-04-30T07:50:52.006Z</time></trkpt><trkpt lat="40.45048441930831" lon="9.708884524137313"><ele>168.0</ele><time>2026-04-30T07:50:53.006Z</time></trkpt><trkpt lat="40.45061969346459" lon="9.708885055004936"><ele>168.0</ele><time>2026-04-30T07:50:54.006Z</time></trkpt><trkpt lat="40.45073380826187" lon="9.70890772738221"><ele>168.0</ele><time>2026-04-30T07:50:55.006Z</time></trkpt><trkpt lat="40.450835939205035" lon="9.708961565946005"><ele>168.0</ele><time>2026-04-30T07:50:56.006Z</time></trkpt><trkpt lat="40.45090080828194" lon="9.709069525689"><ele>168.0</ele><time>2026-04-30T07:50:57.006Z</time></trkpt><trkpt lat="40.45093979708954" lon="9.709183133681506"><ele>168.0</ele><time>2026-04-30T07:50:58.006Z</time></trkpt><trkpt lat="40.45098902341593" lon="9.709312648538104"><ele>168.0</ele><time>2026-04-30T07:50:59.006Z</time></trkpt><trkpt lat="40.45103432820057" lon="9.709456331180395"><ele>168.0</ele><time>2026-04-30T07:51:00.006Z</time></trkpt><trkpt lat="40.45108404215886" lon="9.709612455571541"><ele>168.0</ele><time>2026-04-30T07:51:01.006Z</time></trkpt><trkpt lat="40.45115103766672" lon="9.709778013785455"><ele>168.0</ele><time>2026-04-30T07:51:02.006Z</time></trkpt><trkpt lat="40.45119614069367" lon="9.70996126974335"><ele>168.0</ele><time>2026-04-30T07:51:03.006Z</time></trkpt><trkpt lat="40.451254255148164" lon="9.710150004164232"><ele>168.0</ele><time>2026-04-30T07:51:04.006Z</time></trkpt><trkpt lat="40.45131049663637" lon="9.710344442376423"><ele>169.66666666666666</ele><time>2026-04-30T07:51:05.006Z</time></trkpt><trkpt lat="40.45137129703777" lon="9.710537124917838"><ele>171.33333333333331</ele><time>2026-04-30T07:51:06.006Z</time></trkpt><trkpt lat="40.45143085224976" lon="9.71073493460885"><ele>173.0</ele><time>2026-04-30T07:51:07.006Z</time></trkpt><trkpt lat="40.45149199400472" lon="9.710932982874755"><ele>175.0</ele><time>2026-04-30T07:51:08.006Z</time></trkpt><trkpt lat="40.451550955785486" lon="9.711140317204164"><ele>177.0</ele><time>2026-04-30T07:51:09.006Z</time></trkpt><trkpt lat="40.45161724974515" lon="9.711337217812227"><ele>179.0</ele><time>2026-04-30T07:51:10.006Z</time></trkpt><trkpt lat="40.4516819872801" lon="9.711538270168742"><ele>179.0</ele><time>2026-04-30T07:51:11.006Z</time></trkpt><trkpt lat="40.45174359035369" lon="9.711737954989594"><ele>179.0</ele><time>2026-04-30T07:51:12.006Z</time></trkpt><trkpt lat="40.45181100561178" lon="9.711938900992198"><ele>179.0</ele><time>2026-04-30T07:51:13.006Z</time></trkpt><trkpt lat="40.451884487493416" lon="9.712134680038156"><ele>179.66666666666666</ele><time>2026-04-30T07:51:14.006Z</time></trkpt><trkpt lat="40.45195839085886" lon="9.712324303273192"><ele>180.33333333333334</ele><time>2026-04-30T07:51:15.006Z</time></trkpt><trkpt lat="40.45203657050297" lon="9.71252110666341"><ele>181.0</ele><time>2026-04-30T07:51:16.006Z</time></trkpt><trkpt lat="40.45211853605777" lon="9.712711262176942"><ele>185.0</ele><time>2026-04-30T07:51:17.006Z</time></trkpt><trkpt lat="40.45220749241897" lon="9.712903018377856"><ele>189.0</ele><time>2026-04-30T07:51:18.006Z</time></trkpt><trkpt lat="40.45229800158475" lon="9.71308836128046"><ele>193.0</ele><time>2026-04-30T07:51:19.006Z</time></trkpt><trkpt lat="40.452398501295235" lon="9.713258219455371"><ele>193.0</ele><time>2026-04-30T07:51:20.006Z</time></trkpt><trkpt lat="40.45250504091336" lon="9.713420665494008"><ele>193.0</ele><time>2026-04-30T07:51:21.006Z</time></trkpt><trkpt lat="40.452620898038816" lon="9.71357964380781"><ele>193.0</ele><time>2026-04-30T07:51:22.006Z</time></trkpt><trkpt lat="40.4527441642657" lon="9.713726922796948"><ele>194.33333333333331</ele><time>2026-04-30T07:51:23.006Z</time></trkpt><trkpt lat="40.45287165755703" lon="9.713862751635368"><ele>195.66666666666669</ele><time>2026-04-30T07:51:24.006Z</time></trkpt><trkpt lat="40.45301246064933" lon="9.713987975907585"><ele>197.0</ele><time>2026-04-30T07:51:25.006Z</time></trkpt><trkpt lat="40.45315823019449" lon="9.714100592493446"><ele>198.33333333333334</ele><time>2026-04-30T07:51:26.006Z</time></trkpt><trkpt lat="40.45330944719871" lon="9.714212537366658"><ele>199.66666666666669</ele><time>2026-04-30T07:51:27.006Z</time></trkpt><trkpt lat="40.45346447540198" lon="9.714327705275767"><ele>201.0</ele><time>2026-04-30T07:51:28.006Z</time></trkpt><trkpt lat="40.45361484539461" lon="9.714443954841842"><ele>200.8</ele><time>2026-04-30T07:51:29.006Z</time></trkpt><trkpt lat="40.45374201540128" lon="9.714540470913201"><ele>200.60000000000002</ele><time>2026-04-30T07:51:30.006Z</time></trkpt><trkpt lat="40.4538410779761" lon="9.714627788203682"><ele>200.4</ele><time>2026-04-30T07:51:31.006Z</time></trkpt><trkpt lat="40.45390613839753" lon="9.714701393287896"><ele>200.2</ele><time>2026-04-30T07:51:32.006Z</time></trkpt><trkpt lat="40.453962556613455" lon="9.714771631368919"><ele>200.0</ele><time>2026-04-30T07:51:33.006Z</time></trkpt><trkpt lat="40.45399474172762" lon="9.714866068917173"><ele>200.0</ele><time>2026-04-30T07:51:34.006Z</time></trkpt><trkpt lat="40.45398090018756" lon="9.714989886980206"><ele>200.0</ele><time>2026-04-30T07:51:35.006Z</time></trkpt><trkpt lat="40.45396868642166" lon="9.715132637305022"><ele>200.0</ele><time>2026-04-30T07:51:36.006Z</time></trkpt><trkpt lat="40.453945075709115" lon="9.715295343818168"><ele>200.0</ele><time>2026-04-30T07:51:37.006Z</time></trkpt><trkpt lat="40.4539190714488" lon="9.715472182382031"><ele>197.0</ele><time>2026-04-30T07:51:38.006Z</time></trkpt><trkpt lat="40.453892841565875" lon="9.715658865251495"><ele>194.0</ele><time>2026-04-30T07:51:39.006Z</time></trkpt><trkpt lat="40.45386794246929" lon="9.715844343528177"><ele>191.0</ele><time>2026-04-30T07:51:40.006Z</time></trkpt><trkpt lat="40.453853198206595" lon="9.716024469472785"><ele>188.0</ele><time>2026-04-30T07:51:41.006Z</time></trkpt><trkpt lat="40.45385323785686" lon="9.716204748318866"><ele>185.75</ele><time>2026-04-30T07:51:42.007Z</time></trkpt><trkpt lat="40.453888052389196" lon="9.716382163085264"><ele>183.5</ele><time>2026-04-30T07:51:43.007Z</time></trkpt><trkpt lat="40.453954699047316" lon="9.716530560283383"><ele>181.25</ele><time>2026-04-30T07:51:44.007Z</time></trkpt><trkpt lat="40.453988942052256" lon="9.716689089215247"><ele>179.0</ele><time>2026-04-30T07:51:45.007Z</time></trkpt><trkpt lat="40.45398389459928" lon="9.716856498307916"><ele>177.25</ele><time>2026-04-30T07:51:46.007Z</time></trkpt><trkpt lat="40.45397956767932" lon="9.717027001701384"><ele>175.5</ele><time>2026-04-30T07:51:47.007Z</time></trkpt><trkpt lat="40.45397194043969" lon="9.71718267361246"><ele>173.75</ele><time>2026-04-30T07:51:48.007Z</time></trkpt><trkpt lat="40.45397576208034" lon="9.71732491284475"><ele>172.0</ele><time>2026-04-30T07:51:49.007Z</time></trkpt><trkpt lat="40.454015279498584" lon="9.717442863968568"><ele>172.0</ele><time>2026-04-30T07:51:50.007Z</time></trkpt><trkpt lat="40.45406079802351" lon="9.71753093540902"><ele>172.0</ele><time>2026-04-30T07:51:51.007Z</time></trkpt><trkpt lat="40.45412152027486" lon="9.717603131225257"><ele>172.0</ele><time>2026-04-30T07:51:52.007Z</time></trkpt><trkpt lat="40.454199489769756" lon="9.717636356923242"><ele>172.0</ele><time>2026-04-30T07:51:53.007Z</time></trkpt><trkpt lat="40.454279528426234" lon="9.717650785454305"><ele>172.0</ele><time>2026-04-30T07:51:54.007Z</time></trkpt><trkpt lat="40.45435521349695" lon="9.717638789942573"><ele>172.0</ele><time>2026-04-30T07:51:55.007Z</time></trkpt><trkpt lat="40.454469144430924" lon="9.717598527306329"><ele>172.0</ele><time>2026-04-30T07:51:57.007Z</time></trkpt><trkpt lat="40.45452124987374" lon="9.717499826737349"><ele>172.0</ele><time>2026-04-30T07:51:58.007Z</time></trkpt><trkpt lat="40.45456694702653" lon="9.717375232528868"><ele>172.0</ele><time>2026-04-30T07:51:59.007Z</time></trkpt><trkpt lat="40.45461321470851" lon="9.717234710554603"><ele>172.0</ele><time>2026-04-30T07:52:00.007Z</time></trkpt><trkpt lat="40.45465035506879" lon="9.717086884637226"><ele>172.0</ele><time>2026-04-30T07:52:01.007Z</time></trkpt><trkpt lat="40.45466925120461" lon="9.716929496363933"><ele>167.75</ele><time>2026-04-30T07:52:02.007Z</time></trkpt><trkpt lat="40.45466496072484" lon="9.716756003553337"><ele>163.5</ele><time>2026-04-30T07:52:03.007Z</time></trkpt><trkpt lat="40.45465345382696" lon="9.716587283225795"><ele>159.25</ele><time>2026-04-30T07:52:04.007Z</time></trkpt><trkpt lat="40.45464859978176" lon="9.716445331706478"><ele>155.0</ele><time>2026-04-30T07:52:05.007Z</time></trkpt><trkpt lat="40.45466409475111" lon="9.71631869384892"><ele>155.0</ele><time>2026-04-30T07:52:06.007Z</time></trkpt><trkpt lat="40.45468848132833" lon="9.716204975538355"><ele>155.0</ele><time>2026-04-30T07:52:07.007Z</time></trkpt><trkpt lat="40.45473621212127" lon="9.716129944979656"><ele>155.0</ele><time>2026-04-30T07:52:08.007Z</time></trkpt><trkpt lat="40.45478811838035" lon="9.716042809652812"><ele>155.0</ele><time>2026-04-30T07:52:10.007Z</time></trkpt><trkpt lat="40.4548624694498" lon="9.716020836944036"><ele>155.0</ele><time>2026-04-30T07:52:15.007Z</time></trkpt><trkpt lat="40.45481231226327" lon="9.716092568028088"><ele>155.0</ele><time>2026-04-30T07:52:20.007Z</time></trkpt><trkpt lat="40.454709921149146" lon="9.716159416900808"><ele>155.0</ele><time>2026-04-30T07:52:22.007Z</time></trkpt><trkpt lat="40.454659730314596" lon="9.716230188688353"><ele>155.0</ele><time>2026-04-30T07:52:23.007Z</time></trkpt><trkpt lat="40.45462995894641" lon="9.7163246511252"><ele>155.0</ele><time>2026-04-30T07:52:24.007Z</time></trkpt><trkpt lat="40.45461484578015" lon="9.71641746995717"><ele>155.0</ele><time>2026-04-30T07:52:25.007Z</time></trkpt><trkpt lat="40.454615631036624" lon="9.716522723666843"><ele>155.0</ele><time>2026-04-30T07:52:26.007Z</time></trkpt><trkpt lat="40.45460414862982" lon="9.716641695640067"><ele>155.0</ele><time>2026-04-30T07:52:27.007Z</time></trkpt><trkpt lat="40.45460165217709" lon="9.716764854393523"><ele>155.0</ele><time>2026-04-30T07:52:28.007Z</time></trkpt><trkpt lat="40.45463931212791" lon="9.716891860316743"><ele>155.0</ele><time>2026-04-30T07:52:29.007Z</time></trkpt><trkpt lat="40.45463055048368" lon="9.717021911101169"><ele>155.0</ele><time>2026-04-30T07:52:30.007Z</time></trkpt><trkpt lat="40.454585569855844" lon="9.717145731812193"><ele>155.0</ele><time>2026-04-30T07:52:31.007Z</time></trkpt><trkpt lat="40.45454550119149" lon="9.717282019644836"><ele>155.0</ele><time>2026-04-30T07:52:32.007Z</time></trkpt><trkpt lat="40.45449524158885" lon="9.717409263365203"><ele>157.83333333333331</ele><time>2026-04-30T07:52:33.007Z</time></trkpt><trkpt lat="40.454449496289065" lon="9.717520020668198"><ele>160.66666666666666</ele><time>2026-04-30T07:52:34.007Z</time></trkpt><trkpt lat="40.45440767021606" lon="9.717591513775155"><ele>163.5</ele><time>2026-04-30T07:52:35.007Z</time></trkpt><trkpt lat="40.454334053201464" lon="9.717632099248274"><ele>166.33333333333334</ele><time>2026-04-30T07:52:37.007Z</time></trkpt><trkpt lat="40.45439918875078" lon="9.717596274667244"><ele>169.16666666666669</ele><time>2026-04-30T07:52:43.007Z</time></trkpt><trkpt lat="40.45440671727646" lon="9.717712309918882"><ele>172.0</ele><time>2026-04-30T07:52:44.007Z</time></trkpt><trkpt lat="40.45406022271743" lon="9.717562614640839"><ele>172.0</ele><time>2026-04-30T07:52:45.007Z</time></trkpt><trkpt lat="40.454558972601916" lon="9.717402026886253"><ele>172.0</ele><time>2026-04-30T07:52:46.007Z</time></trkpt><trkpt lat="40.45460722136274" lon="9.717265532290583"><ele>172.0</ele><time>2026-04-30T07:52:47.007Z</time></trkpt><trkpt lat="40.45464346862961" lon="9.717122146708109"><ele>172.0</ele><time>2026-04-30T07:52:48.007Z</time></trkpt><trkpt lat="40.45465796585849" lon="9.716970049580677"><ele>172.0</ele><time>2026-04-30T07:52:49.007Z</time></trkpt><trkpt lat="40.45466297114435" lon="9.716824445104297"><ele>168.6</ele><time>2026-04-30T07:52:50.007Z</time></trkpt><trkpt lat="40.454658021354454" lon="9.71667947957792"><ele>165.2</ele><time>2026-04-30T07:52:51.007Z</time></trkpt><trkpt lat="40.45465068536175" lon="9.716544351926217"><ele>161.8</ele><time>2026-04-30T07:52:52.007Z</time></trkpt><trkpt lat="40.454646367654085" lon="9.716412995146905"><ele>158.4</ele><time>2026-04-30T07:52:53.007Z</time></trkpt><trkpt lat="40.454657819193386" lon="9.7163044092667"><ele>155.0</ele><time>2026-04-30T07:52:54.007Z</time></trkpt><trkpt lat="40.45468774885" lon="9.716219726677311"><ele>155.0</ele><time>2026-04-30T07:52:55.007Z</time></trkpt><trkpt lat="40.454731545400115" lon="9.716134519667776"><ele>155.0</ele><time>2026-04-30T07:52:56.007Z</time></trkpt><trkpt lat="40.45480419868621" lon="9.71609636269031"><ele>155.0</ele><time>2026-04-30T07:52:57.007Z</time></trkpt><trkpt lat="40.454880317166435" lon="9.716046927041019"><ele>155.0</ele><time>2026-04-30T07:52:58.007Z</time></trkpt><trkpt lat="40.45496476915978" lon="9.71600076369115"><ele>155.0</ele><time>2026-04-30T07:52:59.007Z</time></trkpt><trkpt lat="40.455060258533564" lon="9.715932353517372"><ele>155.0</ele><time>2026-04-30T07:53:00.007Z</time></trkpt><trkpt lat="40.455155520391614" lon="9.71587246438893"><ele>156.2</ele><time>2026-04-30T07:53:01.007Z</time></trkpt><trkpt lat="40.45524623085696" lon="9.715813369599955"><ele>157.4</ele><time>2026-04-30T07:53:02.007Z</time></trkpt><trkpt lat="40.455342196761165" lon="9.715745935670466"><ele>158.60000000000002</ele><time>2026-04-30T07:53:03.007Z</time></trkpt><trkpt lat="40.45544639716555" lon="9.715677680160374"><ele>159.8</ele><time>2026-04-30T07:53:04.007Z</time></trkpt><trkpt lat="40.45555620139029" lon="9.71561067329121"><ele>161.0</ele><time>2026-04-30T07:53:05.007Z</time></trkpt><trkpt lat="40.45565966058856" lon="9.715550033952752"><ele>157.4</ele><time>2026-04-30T07:53:06.007Z</time></trkpt><trkpt lat="40.455750551594704" lon="9.715487935910263"><ele>153.8</ele><time>2026-04-30T07:53:07.007Z</time></trkpt><trkpt lat="40.45585162914512" lon="9.715442742328639"><ele>150.20000000000002</ele><time>2026-04-30T07:53:08.007Z</time></trkpt><trkpt lat="40.45594850992704" lon="9.715409475850546"><ele>146.60000000000002</ele><time>2026-04-30T07:53:09.007Z</time></trkpt><trkpt lat="40.45604440088024" lon="9.715378093475648"><ele>143.0</ele><time>2026-04-30T07:53:10.007Z</time></trkpt><trkpt lat="40.45613736471253" lon="9.715347129181124"><ele>143.0</ele><time>2026-04-30T07:53:11.007Z</time></trkpt><trkpt lat="40.456218939424616" lon="9.715282947292925"><ele>143.0</ele><time>2026-04-30T07:53:12.008Z</time></trkpt><trkpt lat="40.45630244522242" lon="9.715225041010585"><ele>143.0</ele><time>2026-04-30T07:53:13.008Z</time></trkpt><trkpt lat="40.456387176956646" lon="9.715158729321479"><ele>143.0</ele><time>2026-04-30T07:53:14.008Z</time></trkpt><trkpt lat="40.456474436783836" lon="9.715111729504363"><ele>143.0</ele><time>2026-04-30T07:53:15.008Z</time></trkpt><trkpt lat="40.456553945083385" lon="9.715108197247265"><ele>143.20000000000002</ele><time>2026-04-30T07:53:16.008Z</time></trkpt><trkpt lat="40.456634547064645" lon="9.715179482281703"><ele>143.4</ele><time>2026-04-30T07:53:18.008Z</time></trkpt><trkpt lat="40.4566447108655" lon="9.715355656945114"><ele>143.60000000000002</ele><time>2026-04-30T07:53:20.008Z</time></trkpt><trkpt lat="40.45667902022477" lon="9.715461121860313"><ele>143.8</ele><time>2026-04-30T07:53:21.008Z</time></trkpt><trkpt lat="40.45669361029236" lon="9.715560152505708"><ele>144.0</ele><time>2026-04-30T07:53:22.008Z</time></trkpt><trkpt lat="40.45672875510621" lon="9.715640913048752"><ele>142.6</ele><time>2026-04-30T07:53:23.008Z</time></trkpt><trkpt lat="40.45678665007653" lon="9.715699598155247"><ele>141.2</ele><time>2026-04-30T07:53:24.008Z</time></trkpt><trkpt lat="40.456862627180186" lon="9.715748888439514"><ele>139.79999999999998</ele><time>2026-04-30T07:53:25.008Z</time></trkpt><trkpt lat="40.45695365923149" lon="9.715812476769033"><ele>138.4</ele><time>2026-04-30T07:53:26.008Z</time></trkpt><trkpt lat="40.45705970996292" lon="9.715887668162217"><ele>137.0</ele><time>2026-04-30T07:53:27.008Z</time></trkpt><trkpt lat="40.45716381934546" lon="9.715971017151883"><ele>137.0</ele><time>2026-04-30T07:53:28.008Z</time></trkpt><trkpt lat="40.457259749134" lon="9.716066705685007"><ele>137.0</ele><time>2026-04-30T07:53:29.008Z</time></trkpt><trkpt lat="40.45732719480986" lon="9.716163021704665"><ele>137.0</ele><time>2026-04-30T07:53:30.008Z</time></trkpt><trkpt lat="40.45738086111301" lon="9.716275732793443"><ele>137.0</ele><time>2026-04-30T07:53:31.008Z</time></trkpt><trkpt lat="40.45741691410282" lon="9.716401440822448"><ele>137.0</ele><time>2026-04-30T07:53:32.008Z</time></trkpt><trkpt lat="40.45739726769641" lon="9.716546168053757"><ele>135.75</ele><time>2026-04-30T07:53:33.008Z</time></trkpt><trkpt lat="40.45741631012323" lon="9.716705082068211"><ele>134.5</ele><time>2026-04-30T07:53:34.008Z</time></trkpt><trkpt lat="40.457444269642586" lon="9.716864053926455"><ele>133.25</ele><time>2026-04-30T07:53:35.008Z</time></trkpt><trkpt lat="40.45750322315561" lon="9.716991725397264"><ele>132.0</ele><time>2026-04-30T07:53:36.008Z</time></trkpt><trkpt lat="40.45756648565185" lon="9.717123928385291"><ele>130.5</ele><time>2026-04-30T07:53:37.008Z</time></trkpt><trkpt lat="40.457648552465166" lon="9.717264418089352"><ele>129.0</ele><time>2026-04-30T07:53:38.008Z</time></trkpt><trkpt lat="40.45773596995009" lon="9.717408488973"><ele>127.5</ele><time>2026-04-30T07:53:39.008Z</time></trkpt><trkpt lat="40.45782786214571" lon="9.717560345725305"><ele>126.0</ele><time>2026-04-30T07:53:40.008Z</time></trkpt><trkpt lat="40.45791243300117" lon="9.717707424510483"><ele>127.5</ele><time>2026-04-30T07:53:41.008Z</time></trkpt><trkpt lat="40.45798219032165" lon="9.717842409227673"><ele>129.0</ele><time>2026-04-30T07:53:42.008Z</time></trkpt><trkpt lat="40.458026315700344" lon="9.71798510785688"><ele>130.5</ele><time>2026-04-30T07:53:43.008Z</time></trkpt><trkpt lat="40.45801956873" lon="9.718140396550123"><ele>132.0</ele><time>2026-04-30T07:53:44.008Z</time></trkpt><trkpt lat="40.45808540051716" lon="9.71823973582768"><ele>132.0</ele><time>2026-04-30T07:53:45.008Z</time></trkpt><trkpt lat="40.458111681159465" lon="9.71834998175228"><ele>132.0</ele><time>2026-04-30T07:53:46.008Z</time></trkpt><trkpt lat="40.4581924733699" lon="9.7184234560864"><ele>132.0</ele><time>2026-04-30T07:53:47.008Z</time></trkpt><trkpt lat="40.45829584136964" lon="9.718430944904702"><ele>132.0</ele><time>2026-04-30T07:53:48.008Z</time></trkpt><trkpt lat="40.45839390853963" lon="9.718458631417452"><ele>132.0</ele><time>2026-04-30T07:53:49.008Z</time></trkpt><trkpt lat="40.45850010731787" lon="9.71848806439327"><ele>132.0</ele><time>2026-04-30T07:53:50.008Z</time></trkpt><trkpt lat="40.458626987744836" lon="9.71851342538787"><ele>132.0</ele><time>2026-04-30T07:53:51.008Z</time></trkpt><trkpt lat="40.45875588229218" lon="9.718535517127687"><ele>132.0</ele><time>2026-04-30T07:53:52.008Z</time></trkpt><trkpt lat="40.458887965742726" lon="9.7185489590243"><ele>132.0</ele><time>2026-04-30T07:53:53.008Z</time></trkpt><trkpt lat="40.45902414214039" lon="9.718552425579306"><ele>130.5</ele><time>2026-04-30T07:53:54.008Z</time></trkpt><trkpt lat="40.45917239600218" lon="9.71856366037806"><ele>129.0</ele><time>2026-04-30T07:53:55.008Z</time></trkpt><trkpt lat="40.45931831818055" lon="9.718597378645809"><ele>127.5</ele><time>2026-04-30T07:53:56.008Z</time></trkpt><trkpt lat="40.45945550789461" lon="9.718639107704416"><ele>126.0</ele><time>2026-04-30T07:53:57.008Z</time></trkpt><trkpt lat="40.459581035355" lon="9.718689606172754"><ele>129.5</ele><time>2026-04-30T07:53:58.008Z</time></trkpt><trkpt lat="40.45968728704753" lon="9.71877207568289"><ele>133.0</ele><time>2026-04-30T07:53:59.008Z</time></trkpt><trkpt lat="40.45979284321328" lon="9.718863673160742"><ele>136.5</ele><time>2026-04-30T07:54:00.008Z</time></trkpt><trkpt lat="40.45988843173702" lon="9.71898407786955"><ele>140.0</ele><time>2026-04-30T07:54:01.008Z</time></trkpt><trkpt lat="40.46000711600591" lon="9.719051118459493"><ele>140.0</ele><time>2026-04-30T07:54:02.008Z</time></trkpt><trkpt lat="40.46013222091932" lon="9.719108819866248"><ele>140.0</ele><time>2026-04-30T07:54:03.008Z</time></trkpt><trkpt lat="40.460269121211354" lon="9.71915113773243"><ele>140.0</ele><time>2026-04-30T07:54:04.008Z</time></trkpt><trkpt lat="40.4604122437814" lon="9.719185892970426"><ele>140.0</ele><time>2026-04-30T07:54:05.008Z</time></trkpt><trkpt lat="40.4605537252618" lon="9.719219359344876"><ele>142.75</ele><time>2026-04-30T07:54:06.008Z</time></trkpt><trkpt lat="40.46069543330226" lon="9.719252122692337"><ele>145.5</ele><time>2026-04-30T07:54:07.008Z</time></trkpt><trkpt lat="40.46083882293112" lon="9.719288411229567"><ele>148.25</ele><time>2026-04-30T07:54:08.008Z</time></trkpt><trkpt lat="40.46098136030436" lon="9.719329974316288"><ele>151.0</ele><time>2026-04-30T07:54:09.008Z</time></trkpt><trkpt lat="40.46112450187491" lon="9.719371082087573"><ele>150.75</ele><time>2026-04-30T07:54:10.008Z</time></trkpt><trkpt lat="40.46126257352615" lon="9.719410717523486"><ele>150.5</ele><time>2026-04-30T07:54:11.008Z</time></trkpt><trkpt lat="40.46139834648006" lon="9.719434983823508"><ele>150.25</ele><time>2026-04-30T07:54:12.008Z</time></trkpt><trkpt lat="40.461526200011605" lon="9.719443588682644"><ele>150.0</ele><time>2026-04-30T07:54:13.008Z</time></trkpt><trkpt lat="40.46165328705604" lon="9.719424837173706"><ele>152.75</ele><time>2026-04-30T07:54:14.008Z</time></trkpt><trkpt lat="40.46178631505849" lon="9.719387740705821"><ele>155.5</ele><time>2026-04-30T07:54:15.008Z</time></trkpt><trkpt lat="40.461924864956885" lon="9.719337351736945"><ele>158.25</ele><time>2026-04-30T07:54:16.008Z</time></trkpt><trkpt lat="40.46206881882656" lon="9.71927772197269"><ele>161.0</ele><time>2026-04-30T07:54:17.008Z</time></trkpt><trkpt lat="40.46221961829345" lon="9.719220316398413"><ele>161.0</ele><time>2026-04-30T07:54:18.008Z</time></trkpt><trkpt lat="40.46237197852182" lon="9.719163284062711"><ele>161.0</ele><time>2026-04-30T07:54:19.008Z</time></trkpt><trkpt lat="40.46251846707331" lon="9.719113559463558"><ele>161.0</ele><time>2026-04-30T07:54:20.008Z</time></trkpt><trkpt lat="40.46265572842699" lon="9.719065033315156"><ele>161.0</ele><time>2026-04-30T07:54:21.008Z</time></trkpt><trkpt lat="40.46279214293963" lon="9.719024297014176"><ele>161.0</ele><time>2026-04-30T07:54:22.008Z</time></trkpt><trkpt lat="40.46292397683373" lon="9.718978100070753"><ele>161.0</ele><time>2026-04-30T07:54:23.008Z</time></trkpt><trkpt lat="40.46305929691275" lon="9.718924821937945"><ele>161.0</ele><time>2026-04-30T07:54:24.008Z</time></trkpt><trkpt lat="40.46318779609811" lon="9.718861220184355"><ele>156.25</ele><time>2026-04-30T07:54:25.008Z</time></trkpt><trkpt lat="40.46331932762532" lon="9.718792711662017"><ele>151.5</ele><time>2026-04-30T07:54:26.008Z</time></trkpt><trkpt lat="40.46345248759206" lon="9.718714806434111"><ele>146.75</ele><time>2026-04-30T07:54:27.008Z</time></trkpt><trkpt lat="40.463590309454446" lon="9.718646834290151"><ele>142.0</ele><time>2026-04-30T07:54:28.008Z</time></trkpt><trkpt lat="40.46372947315031" lon="9.718592635506734"><ele>140.66666666666669</ele><time>2026-04-30T07:54:29.008Z</time></trkpt><trkpt lat="40.46387542007987" lon="9.718547654385421"><ele>139.33333333333334</ele><time>2026-04-30T07:54:30.008Z</time></trkpt><trkpt lat="40.464023947641785" lon="9.718520085393942"><ele>138.0</ele><time>2026-04-30T07:54:31.008Z</time></trkpt><trkpt lat="40.46417749812941" lon="9.718494132432179"><ele>138.0</ele><time>2026-04-30T07:54:32.008Z</time></trkpt><trkpt lat="40.464319850401104" lon="9.71847568303867"><ele>138.0</ele><time>2026-04-30T07:54:33.008Z</time></trkpt><trkpt lat="40.464459786171794" lon="9.718455109607213"><ele>138.0</ele><time>2026-04-30T07:54:34.008Z</time></trkpt><trkpt lat="40.464606749793184" lon="9.71841546025678"><ele>138.0</ele><time>2026-04-30T07:54:35.008Z</time></trkpt><trkpt lat="40.46474825849677" lon="9.718368041891946"><ele>135.0</ele><time>2026-04-30T07:54:36.008Z</time></trkpt><trkpt lat="40.46489349069584" lon="9.718313545954006"><ele>132.0</ele><time>2026-04-30T07:54:37.008Z</time></trkpt><trkpt lat="40.46504158786259" lon="9.718249215730683"><ele>129.0</ele><time>2026-04-30T07:54:38.008Z</time></trkpt><trkpt lat="40.46519512622072" lon="9.718181920044104"><ele>129.0</ele><time>2026-04-30T07:54:39.008Z</time></trkpt><trkpt lat="40.46535602329646" lon="9.718115300109856"><ele>129.0</ele><time>2026-04-30T07:54:40.008Z</time></trkpt><trkpt lat="40.46551595821952" lon="9.71805486973741"><ele>129.0</ele><time>2026-04-30T07:54:41.008Z</time></trkpt><trkpt lat="40.46567916985891" lon="9.71800240697799"><ele>129.0</ele><time>2026-04-30T07:54:42.008Z</time></trkpt><trkpt lat="40.46583636519817" lon="9.717956836746458"><ele>129.0</ele><time>2026-04-30T07:54:43.008Z</time></trkpt><trkpt lat="40.46599104982841" lon="9.717921392804088"><ele>129.0</ele><time>2026-04-30T07:54:44.008Z</time></trkpt><trkpt lat="40.46614835729461" lon="9.717904967355729"><ele>129.25</ele><time>2026-04-30T07:54:45.008Z</time></trkpt><trkpt lat="40.46630353025955" lon="9.717891075223413"><ele>129.5</ele><time>2026-04-30T07:54:46.008Z</time></trkpt><trkpt lat="40.46643991845553" lon="9.71787238725387"><ele>129.75</ele><time>2026-04-30T07:54:47.009Z</time></trkpt><trkpt lat="40.46656902284648" lon="9.717830823923492"><ele>130.0</ele><time>2026-04-30T07:54:48.009Z</time></trkpt><trkpt lat="40.46669369529616" lon="9.717764625544095"><ele>131.5</ele><time>2026-04-30T07:54:49.009Z</time></trkpt><trkpt lat="40.466810896614604" lon="9.717679770911266"><ele>133.0</ele><time>2026-04-30T07:54:50.009Z</time></trkpt><trkpt lat="40.46692333176583" lon="9.717578738898046"><ele>134.5</ele><time>2026-04-30T07:54:51.009Z</time></trkpt><trkpt lat="40.467021613721734" lon="9.717485429921894"><ele>136.0</ele><time>2026-04-30T07:54:52.009Z</time></trkpt><trkpt lat="40.467111025156235" lon="9.717415548166164"><ele>136.0</ele><time>2026-04-30T07:54:53.009Z</time></trkpt><trkpt lat="40.46717590124042" lon="9.717398276780202"><ele>136.0</ele><time>2026-04-30T07:54:54.009Z</time></trkpt><trkpt lat="40.46723857224341" lon="9.717417799545737"><ele>136.0</ele><time>2026-04-30T07:54:55.009Z</time></trkpt><trkpt lat="40.46730884330823" lon="9.717474063520863"><ele>136.0</ele><time>2026-04-30T07:54:56.009Z</time></trkpt><trkpt lat="40.467376156343235" lon="9.71756993136788"><ele>136.0</ele><time>2026-04-30T07:54:57.009Z</time></trkpt><trkpt lat="40.467452945608514" lon="9.717692038939417"><ele>136.0</ele><time>2026-04-30T07:54:58.009Z</time></trkpt><trkpt lat="40.46753358789154" lon="9.717830857594246"><ele>135.5</ele><time>2026-04-30T07:54:59.009Z</time></trkpt><trkpt lat="40.46761451589119" lon="9.717976648059427"><ele>135.0</ele><time>2026-04-30T07:55:00.009Z</time></trkpt><trkpt lat="40.467694921626126" lon="9.718120740434212"><ele>134.5</ele><time>2026-04-30T07:55:01.009Z</time></trkpt><trkpt lat="40.46777082009577" lon="9.718262863423783"><ele>134.0</ele><time>2026-04-30T07:55:02.009Z</time></trkpt><trkpt lat="40.46784218889778" lon="9.718390549091154"><ele>134.0</ele><time>2026-04-30T07:55:03.009Z</time></trkpt><trkpt lat="40.467917710052724" lon="9.718493067830776"><ele>134.0</ele><time>2026-04-30T07:55:04.009Z</time></trkpt><trkpt lat="40.46799533870105" lon="9.71857539597188"><ele>134.0</ele><time>2026-04-30T07:55:05.009Z</time></trkpt><trkpt lat="40.468057672085" lon="9.718615380778951"><ele>134.0</ele><time>2026-04-30T07:55:06.009Z</time></trkpt><trkpt lat="40.46814775142902" lon="9.718622246295478"><ele>134.0</ele><time>2026-04-30T07:55:08.009Z</time></trkpt><trkpt lat="40.468216738582676" lon="9.718625782519997"><ele>134.0</ele><time>2026-04-30T07:55:09.009Z</time></trkpt><trkpt lat="40.4683057450822" lon="9.718624072636116"><ele>136.0</ele><time>2026-04-30T07:55:10.009Z</time></trkpt><trkpt lat="40.46840457798544" lon="9.718603968282425"><ele>138.0</ele><time>2026-04-30T07:55:11.009Z</time></trkpt><trkpt lat="40.46851861096709" lon="9.71857494228943"><ele>140.0</ele><time>2026-04-30T07:55:12.009Z</time></trkpt><trkpt lat="40.468643826442595" lon="9.718551583624432"><ele>142.0</ele><time>2026-04-30T07:55:13.009Z</time></trkpt><trkpt lat="40.468769573568636" lon="9.718526132144316"><ele>142.5</ele><time>2026-04-30T07:55:14.009Z</time></trkpt><trkpt lat="40.4689078262111" lon="9.718534214953662"><ele>143.0</ele><time>2026-04-30T07:55:15.009Z</time></trkpt><trkpt lat="40.469028975526655" lon="9.7185735284478"><ele>143.5</ele><time>2026-04-30T07:55:16.009Z</time></trkpt><trkpt lat="40.469157290758794" lon="9.718640483100652"><ele>144.0</ele><time>2026-04-30T07:55:17.009Z</time></trkpt><trkpt lat="40.469285236418536" lon="9.718727746450092"><ele>144.66666666666666</ele><time>2026-04-30T07:55:18.009Z</time></trkpt><trkpt lat="40.469409469784246" lon="9.718842580475657"><ele>145.33333333333331</ele><time>2026-04-30T07:55:19.009Z</time></trkpt><trkpt lat="40.46952270386844" lon="9.718967649051569"><ele>146.0</ele><time>2026-04-30T07:55:20.009Z</time></trkpt><trkpt lat="40.46926725409548" lon="9.718957304097813"><ele>146.0</ele><time>2026-04-30T07:55:21.009Z</time></trkpt><trkpt lat="40.46933883256256" lon="9.719026416781926"><ele>146.0</ele><time>2026-04-30T07:55:22.009Z</time></trkpt><trkpt lat="40.46941741826682" lon="9.719057687601815"><ele>146.0</ele><time>2026-04-30T07:55:23.009Z</time></trkpt><trkpt lat="40.46950924813932" lon="9.719063954169433"><ele>146.0</ele><time>2026-04-30T07:55:24.009Z</time></trkpt><trkpt lat="40.46961039414791" lon="9.719048949523012"><ele>146.0</ele><time>2026-04-30T07:55:25.009Z</time></trkpt><trkpt lat="40.46972465444886" lon="9.719041020664813"><ele>147.75</ele><time>2026-04-30T07:55:26.009Z</time></trkpt><trkpt lat="40.46984933133891" lon="9.719039790851491"><ele>149.5</ele><time>2026-04-30T07:55:27.009Z</time></trkpt><trkpt lat="40.46998063724818" lon="9.71904365735076"><ele>151.25</ele><time>2026-04-30T07:55:28.009Z</time></trkpt><trkpt lat="40.470114623617356" lon="9.719047256975248"><ele>153.0</ele><time>2026-04-30T07:55:29.009Z</time></trkpt><trkpt lat="40.47025279246509" lon="9.719054073544285"><ele>153.0</ele><time>2026-04-30T07:55:30.009Z</time></trkpt><trkpt lat="40.47039458291438" lon="9.719061415154593"><ele>153.0</ele><time>2026-04-30T07:55:31.009Z</time></trkpt><trkpt lat="40.47053513836521" lon="9.719073369906726"><ele>153.0</ele><time>2026-04-30T07:55:32.009Z</time></trkpt><trkpt lat="40.47065761784184" lon="9.719085662758093"><ele>153.0</ele><time>2026-04-30T07:55:33.009Z</time></trkpt><trkpt lat="40.470777934050304" lon="9.719086742597359"><ele>155.5</ele><time>2026-04-30T07:55:34.009Z</time></trkpt><trkpt lat="40.470902136484085" lon="9.719070792419016"><ele>158.0</ele><time>2026-04-30T07:55:35.009Z</time></trkpt><trkpt lat="40.4710346539895" lon="9.719042459495311"><ele>160.5</ele><time>2026-04-30T07:55:36.009Z</time></trkpt><trkpt lat="40.47117041439183" lon="9.719004342556664"><ele>163.0</ele><time>2026-04-30T07:55:37.009Z</time></trkpt><trkpt lat="40.47130888917713" lon="9.718961045039457"><ele>164.25</ele><time>2026-04-30T07:55:38.009Z</time></trkpt><trkpt lat="40.4714547184517" lon="9.718927224768866"><ele>165.5</ele><time>2026-04-30T07:55:39.009Z</time></trkpt><trkpt lat="40.471605130783395" lon="9.718897155967149"><ele>166.75</ele><time>2026-04-30T07:55:40.009Z</time></trkpt><trkpt lat="40.471748838223775" lon="9.71887047461692"><ele>168.0</ele><time>2026-04-30T07:55:41.009Z</time></trkpt><trkpt lat="40.47189377638488" lon="9.71884202032679"><ele>168.0</ele><time>2026-04-30T07:55:42.009Z</time></trkpt><trkpt lat="40.47203723312817" lon="9.718809333690606"><ele>168.0</ele><time>2026-04-30T07:55:43.009Z</time></trkpt><trkpt lat="40.47218803840717" lon="9.718778289832374"><ele>168.0</ele><time>2026-04-30T07:55:44.009Z</time></trkpt><trkpt lat="40.47233355465363" lon="9.718750680269086"><ele>168.0</ele><time>2026-04-30T07:55:45.009Z</time></trkpt><trkpt lat="40.47247576061281" lon="9.718725448654837"><ele>170.5</ele><time>2026-04-30T07:55:46.009Z</time></trkpt><trkpt lat="40.4726107355639" lon="9.71869964513394"><ele>173.0</ele><time>2026-04-30T07:55:47.009Z</time></trkpt><trkpt lat="40.472740813971626" lon="9.718673658629129"><ele>175.5</ele><time>2026-04-30T07:55:48.009Z</time></trkpt><trkpt lat="40.47285807650393" lon="9.718640752421647"><ele>178.0</ele><time>2026-04-30T07:55:49.009Z</time></trkpt><trkpt lat="40.472972810588615" lon="9.71859077204829"><ele>181.75</ele><time>2026-04-30T07:55:50.009Z</time></trkpt><trkpt lat="40.47308673737209" lon="9.718517621177604"><ele>185.5</ele><time>2026-04-30T07:55:51.009Z</time></trkpt><trkpt lat="40.473193730080574" lon="9.718425374517393"><ele>189.25</ele><time>2026-04-30T07:55:52.009Z</time></trkpt><trkpt lat="40.4732947677792" lon="9.71831794360171"><ele>193.0</ele><time>2026-04-30T07:55:53.009Z</time></trkpt><trkpt lat="40.4733854786853" lon="9.718193502127251"><ele>193.0</ele><time>2026-04-30T07:55:54.009Z</time></trkpt><trkpt lat="40.473463287323014" lon="9.718052848082444"><ele>193.0</ele><time>2026-04-30T07:55:55.009Z</time></trkpt><trkpt lat="40.47352752325782" lon="9.717889280669352"><ele>193.0</ele><time>2026-04-30T07:55:56.009Z</time></trkpt><trkpt lat="40.47359024698476" lon="9.717724397863295"><ele>193.0</ele><time>2026-04-30T07:55:57.009Z</time></trkpt><trkpt lat="40.47365261114019" lon="9.717551666031735"><ele>191.5</ele><time>2026-04-30T07:55:58.009Z</time></trkpt><trkpt lat="40.47371994842103" lon="9.717380600603231"><ele>190.0</ele><time>2026-04-30T07:55:59.009Z</time></trkpt><trkpt lat="40.47379205973525" lon="9.717211930916493"><ele>188.5</ele><time>2026-04-30T07:56:00.009Z</time></trkpt><trkpt lat="40.473862445504196" lon="9.71704835693657"><ele>187.0</ele><time>2026-04-30T07:56:01.009Z</time></trkpt><trkpt lat="40.473933270651834" lon="9.716893686047255"><ele>190.0</ele><time>2026-04-30T07:56:02.009Z</time></trkpt><trkpt lat="40.47400913535119" lon="9.716747508257193"><ele>193.0</ele><time>2026-04-30T07:56:03.009Z</time></trkpt><trkpt lat="40.47409627201469" lon="9.716609544229803"><ele>196.0</ele><time>2026-04-30T07:56:04.009Z</time></trkpt><trkpt lat="40.47418857310384" lon="9.716491900523367"><ele>199.0</ele><time>2026-04-30T07:56:05.009Z</time></trkpt><trkpt lat="40.474294691774" lon="9.716392302055205"><ele>199.0</ele><time>2026-04-30T07:56:06.009Z</time></trkpt><trkpt lat="40.4744129333685" lon="9.71630922983022"><ele>199.0</ele><time>2026-04-30T07:56:07.009Z</time></trkpt><trkpt lat="40.47454289635683" lon="9.716247044638422"><ele>199.0</ele><time>2026-04-30T07:56:08.009Z</time></trkpt><trkpt lat="40.4746798297159" lon="9.716194672360421"><ele>199.0</ele><time>2026-04-30T07:56:09.009Z</time></trkpt><trkpt lat="40.474822306648576" lon="9.716141907865657"><ele>198.0</ele><time>2026-04-30T07:56:10.009Z</time></trkpt><trkpt lat="40.47496926191128" lon="9.716087574454107"><ele>197.0</ele><time>2026-04-30T07:56:11.009Z</time></trkpt><trkpt lat="40.47512149357114" lon="9.716031687397704"><ele>196.0</ele><time>2026-04-30T07:56:12.009Z</time></trkpt><trkpt lat="40.47527577560848" lon="9.71597369525403"><ele>196.0</ele><time>2026-04-30T07:56:13.009Z</time></trkpt><trkpt lat="40.47542573010389" lon="9.715918073003055"><ele>196.0</ele><time>2026-04-30T07:56:14.009Z</time></trkpt><trkpt lat="40.47557164911286" lon="9.715868277054813"><ele>196.0</ele><time>2026-04-30T07:56:15.009Z</time></trkpt><trkpt lat="40.475724692867914" lon="9.715816043730559"><ele>198.33333333333331</ele><time>2026-04-30T07:56:16.009Z</time></trkpt><trkpt lat="40.475876985098694" lon="9.715758371824833"><ele>200.66666666666669</ele><time>2026-04-30T07:56:17.009Z</time></trkpt><trkpt lat="40.47602479455934" lon="9.715699153216176"><ele>203.0</ele><time>2026-04-30T07:56:18.009Z</time></trkpt><trkpt lat="40.47617404467451" lon="9.715637467978038"><ele>205.66666666666669</ele><time>2026-04-30T07:56:19.009Z</time></trkpt><trkpt lat="40.47632321200276" lon="9.715576225984808"><ele>208.33333333333331</ele><time>2026-04-30T07:56:20.009Z</time></trkpt><trkpt lat="40.476470611604235" lon="9.715514959537668"><ele>211.0</ele><time>2026-04-30T07:56:21.009Z</time></trkpt><trkpt lat="40.47662412145127" lon="9.715455100913186"><ele>211.0</ele><time>2026-04-30T07:56:22.009Z</time></trkpt><trkpt lat="40.47678581809637" lon="9.715394633603692"><ele>211.0</ele><time>2026-04-30T07:56:23.01Z</time></trkpt><trkpt lat="40.47694366047426" lon="9.715334392590828"><ele>211.0</ele><time>2026-04-30T07:56:24.01Z</time></trkpt><trkpt lat="40.47710294806801" lon="9.715275454864802"><ele>214.0</ele><time>2026-04-30T07:56:25.01Z</time></trkpt><trkpt lat="40.47726623962255" lon="9.715212484227195"><ele>217.0</ele><time>2026-04-30T07:56:26.01Z</time></trkpt><trkpt lat="40.47741936787215" lon="9.71515712647458"><ele>220.0</ele><time>2026-04-30T07:56:27.01Z</time></trkpt><trkpt lat="40.477568152314475" lon="9.715084074649054"><ele>220.0</ele><time>2026-04-30T07:56:28.01Z</time></trkpt><trkpt lat="40.477722322624615" lon="9.715003786863715"><ele>220.0</ele><time>2026-04-30T07:56:29.01Z</time></trkpt><trkpt lat="40.477868869064345" lon="9.714910944883336"><ele>220.0</ele><time>2026-04-30T07:56:30.01Z</time></trkpt><trkpt lat="40.47801033156984" lon="9.71480878457597"><ele>223.0</ele><time>2026-04-30T07:56:31.01Z</time></trkpt><trkpt lat="40.47814850034853" lon="9.714699313328017"><ele>226.0</ele><time>2026-04-30T07:56:32.01Z</time></trkpt><trkpt lat="40.47827999557758" lon="9.714596544958475"><ele>229.0</ele><time>2026-04-30T07:56:33.01Z</time></trkpt><trkpt lat="40.47840603159675" lon="9.714490916357745"><ele>227.5</ele><time>2026-04-30T07:56:34.01Z</time></trkpt><trkpt lat="40.47852764482171" lon="9.714392294253834"><ele>226.0</ele><time>2026-04-30T07:56:35.01Z</time></trkpt><trkpt lat="40.47864452681237" lon="9.714299562192743"><ele>224.5</ele><time>2026-04-30T07:56:36.01Z</time></trkpt><trkpt lat="40.47875322519216" lon="9.71421468832986"><ele>223.0</ele><time>2026-04-30T07:56:37.01Z</time></trkpt><trkpt lat="40.478848468441065" lon="9.71413307651478"><ele>222.99999999999997</ele><time>2026-04-30T07:56:38.01Z</time></trkpt><trkpt lat="40.478928469250306" lon="9.71406376151797"><ele>223.0</ele><time>2026-04-30T07:56:39.01Z</time></trkpt><trkpt lat="40.47900423061728" lon="9.714007607245957"><ele>223.0</ele><time>2026-04-30T07:56:40.01Z</time></trkpt><trkpt lat="40.479078581592844" lon="9.71397057447607"><ele>223.0</ele><time>2026-04-30T07:56:41.01Z</time></trkpt><trkpt lat="40.479158839987576" lon="9.713953563882445"><ele>222.99999999999997</ele><time>2026-04-30T07:56:42.01Z</time></trkpt><trkpt lat="40.47924416023503" lon="9.71396646918969"><ele>223.0</ele><time>2026-04-30T07:56:43.01Z</time></trkpt><trkpt lat="40.479328610749796" lon="9.71401433587392"><ele>223.0</ele><time>2026-04-30T07:56:44.01Z</time></trkpt><trkpt lat="40.479413432300944" lon="9.7140916775206"><ele>223.0</ele><time>2026-04-30T07:56:45.01Z</time></trkpt><trkpt lat="40.47947667443723" lon="9.714202125586153"><ele>223.0</ele><time>2026-04-30T07:56:46.01Z</time></trkpt><trkpt lat="40.47954128555457" lon="9.714321233305682"><ele>223.0</ele><time>2026-04-30T07:56:47.01Z</time></trkpt><trkpt lat="40.47958558741182" lon="9.714468184454708"><ele>223.0</ele><time>2026-04-30T07:56:48.01Z</time></trkpt><trkpt lat="40.47963718086529" lon="9.714637757829589"><ele>221.75</ele><time>2026-04-30T07:56:49.01Z</time></trkpt><trkpt lat="40.47968599261435" lon="9.714816795929528"><ele>220.5</ele><time>2026-04-30T07:56:50.01Z</time></trkpt><trkpt lat="40.4797401128629" lon="9.715001780339685"><ele>219.25</ele><time>2026-04-30T07:56:51.01Z</time></trkpt><trkpt lat="40.47979645547769" lon="9.715188217233862"><ele>218.0</ele><time>2026-04-30T07:56:52.01Z</time></trkpt><trkpt lat="40.47985661958523" lon="9.715379234237028"><ele>218.0</ele><time>2026-04-30T07:56:53.01Z</time></trkpt><trkpt lat="40.47991714365404" lon="9.715568342706435"><ele>218.0</ele><time>2026-04-30T07:56:54.01Z</time></trkpt><trkpt lat="40.479977413322445" lon="9.715754992309485"><ele>218.0</ele><time>2026-04-30T07:56:55.01Z</time></trkpt><trkpt lat="40.48003781172331" lon="9.715933800890214"><ele>217.0</ele><time>2026-04-30T07:56:56.01Z</time></trkpt><trkpt lat="40.48009733499138" lon="9.716102417912758"><ele>216.0</ele><time>2026-04-30T07:56:57.01Z</time></trkpt><trkpt lat="40.48015833240707" lon="9.716266618385477"><ele>215.0</ele><time>2026-04-30T07:56:58.01Z</time></trkpt><trkpt lat="40.48019055658513" lon="9.716430254815485"><ele>214.0</ele><time>2026-04-30T07:56:59.01Z</time></trkpt><trkpt lat="40.480248108882485" lon="9.716583529314981"><ele>214.0</ele><time>2026-04-30T07:57:00.01Z</time></trkpt><trkpt lat="40.48027812390631" lon="9.71675127150241"><ele>214.0</ele><time>2026-04-30T07:57:01.01Z</time></trkpt><trkpt lat="40.48030007022804" lon="9.716927802032126"><ele>214.0</ele><time>2026-04-30T07:57:02.01Z</time></trkpt><trkpt lat="40.4803228923523" lon="9.717087440519444"><ele>214.0</ele><time>2026-04-30T07:57:03.01Z</time></trkpt><trkpt lat="40.48035060433777" lon="9.717209762429846"><ele>215.0</ele><time>2026-04-30T07:57:04.01Z</time></trkpt><trkpt lat="40.48039050702641" lon="9.717312850331027"><ele>215.99999999999997</ele><time>2026-04-30T07:57:05.01Z</time></trkpt><trkpt lat="40.48043937181276" lon="9.717395823185498"><ele>216.99999999999997</ele><time>2026-04-30T07:57:06.01Z</time></trkpt><trkpt lat="40.480501985857074" lon="9.717468848020761"><ele>218.0</ele><time>2026-04-30T07:57:07.01Z</time></trkpt><trkpt lat="40.4805822472048" lon="9.717545165489783"><ele>219.0</ele><time>2026-04-30T07:57:08.01Z</time></trkpt><trkpt lat="40.48069465500853" lon="9.717627294610319"><ele>215.0</ele><time>2026-04-30T07:57:09.01Z</time></trkpt><trkpt lat="40.48081634256487" lon="9.717705053606704"><ele>211.0</ele><time>2026-04-30T07:57:10.01Z</time></trkpt><trkpt lat="40.480947493722034" lon="9.71778675082227"><ele>207.0</ele><time>2026-04-30T07:57:11.01Z</time></trkpt><trkpt lat="40.48107775852778" lon="9.717863679375766"><ele>203.0</ele><time>2026-04-30T07:57:12.01Z</time></trkpt><trkpt lat="40.48121192678775" lon="9.717942750918478"><ele>197.5</ele><time>2026-04-30T07:57:13.01Z</time></trkpt><trkpt lat="40.48133529589288" lon="9.71802640936971"><ele>192.0</ele><time>2026-04-30T07:57:14.01Z</time></trkpt><trkpt lat="40.48144840265933" lon="9.718112996011362"><ele>186.5</ele><time>2026-04-30T07:57:15.01Z</time></trkpt><trkpt lat="40.48153662308748" lon="9.718190700327105"><ele>181.0</ele><time>2026-04-30T07:57:16.01Z</time></trkpt><trkpt lat="40.481582529440765" lon="9.718290672514806"><ele>181.0</ele><time>2026-04-30T07:57:17.01Z</time></trkpt><trkpt lat="40.481631070553156" lon="9.718381078423658"><ele>181.0</ele><time>2026-04-30T07:57:18.01Z</time></trkpt><trkpt lat="40.481650331995205" lon="9.718502908674665"><ele>181.0</ele><time>2026-04-30T07:57:19.01Z</time></trkpt><trkpt lat="40.48166893882539" lon="9.71865837046295"><ele>181.0</ele><time>2026-04-30T07:57:20.01Z</time></trkpt><trkpt lat="40.48169712695107" lon="9.718831918123607"><ele>181.0</ele><time>2026-04-30T07:57:21.01Z</time></trkpt><trkpt lat="40.48174336487491" lon="9.719014417676958"><ele>181.25</ele><time>2026-04-30T07:57:22.01Z</time></trkpt><trkpt lat="40.48175990852063" lon="9.71920412534979"><ele>181.5</ele><time>2026-04-30T07:57:23.01Z</time></trkpt><trkpt lat="40.48179246712018" lon="9.719392498405176"><ele>181.75</ele><time>2026-04-30T07:57:24.01Z</time></trkpt><trkpt lat="40.48182397634246" lon="9.719567218716342"><ele>182.0</ele><time>2026-04-30T07:57:25.01Z</time></trkpt><trkpt lat="40.481856577176636" lon="9.719711202210041"><ele>183.5</ele><time>2026-04-30T07:57:26.01Z</time></trkpt><trkpt lat="40.481903954141835" lon="9.719836985403859"><ele>185.0</ele><time>2026-04-30T07:57:27.01Z</time></trkpt><trkpt lat="40.48197406506324" lon="9.719939707496641"><ele>186.5</ele><time>2026-04-30T07:57:28.01Z</time></trkpt><trkpt lat="40.48206766500709" lon="9.720031171435483"><ele>188.0</ele><time>2026-04-30T07:57:29.01Z</time></trkpt><trkpt lat="40.48217522976743" lon="9.720106942104225"><ele>184.25</ele><time>2026-04-30T07:57:30.01Z</time></trkpt><trkpt lat="40.48230602921979" lon="9.72018051701591"><ele>180.5</ele><time>2026-04-30T07:57:31.01Z</time></trkpt><trkpt lat="40.48244451828418" lon="9.720245236029442"><ele>176.75</ele><time>2026-04-30T07:57:32.01Z</time></trkpt><trkpt lat="40.482589736054074" lon="9.72031101351395"><ele>173.0</ele><time>2026-04-30T07:57:33.01Z</time></trkpt><trkpt lat="40.482740978637025" lon="9.720385833458812"><ele>173.0</ele><time>2026-04-30T07:57:34.01Z</time></trkpt><trkpt lat="40.48289157046158" lon="9.720465489214204"><ele>173.0</ele><time>2026-04-30T07:57:35.01Z</time></trkpt><trkpt lat="40.48304273792592" lon="9.72054382731346"><ele>173.0</ele><time>2026-04-30T07:57:36.01Z</time></trkpt><trkpt lat="40.48319013364932" lon="9.720621174005966"><ele>168.66666666666666</ele><time>2026-04-30T07:57:37.01Z</time></trkpt><trkpt lat="40.483335931128174" lon="9.72069931811582"><ele>164.33333333333334</ele><time>2026-04-30T07:57:38.01Z</time></trkpt><trkpt lat="40.48348215090087" lon="9.720779141841222"><ele>160.0</ele><time>2026-04-30T07:57:39.01Z</time></trkpt><trkpt lat="40.4836270089656" lon="9.720859429871222"><ele>160.0</ele><time>2026-04-30T07:57:40.01Z</time></trkpt><trkpt lat="40.48377021867316" lon="9.720938277239112"><ele>160.0</ele><time>2026-04-30T07:57:41.01Z</time></trkpt><trkpt lat="40.48391414501776" lon="9.721016639338272"><ele>160.0</ele><time>2026-04-30T07:57:42.01Z</time></trkpt><trkpt lat="40.48405615158181" lon="9.72109937113226"><ele>160.0</ele><time>2026-04-30T07:57:43.01Z</time></trkpt><trkpt lat="40.48419508741547" lon="9.721184938200642"><ele>160.0</ele><time>2026-04-30T07:57:44.01Z</time></trkpt><trkpt lat="40.484338530990506" lon="9.721278993357688"><ele>160.0</ele><time>2026-04-30T07:57:45.01Z</time></trkpt><trkpt lat="40.484477449843624" lon="9.721374041359176"><ele>156.0</ele><time>2026-04-30T07:57:46.01Z</time></trkpt><trkpt lat="40.48460740341847" lon="9.721470280312097"><ele>152.0</ele><time>2026-04-30T07:57:47.01Z</time></trkpt><trkpt lat="40.48473466925612" lon="9.721575764491146"><ele>148.0</ele><time>2026-04-30T07:57:48.01Z</time></trkpt><trkpt lat="40.484867842037595" lon="9.721686614587993"><ele>148.0</ele><time>2026-04-30T07:57:49.01Z</time></trkpt><trkpt lat="40.48500344883425" lon="9.721786260933726"><ele>148.0</ele><time>2026-04-30T07:57:50.01Z</time></trkpt><trkpt lat="40.485136707635114" lon="9.721885778741893"><ele>148.0</ele><time>2026-04-30T07:57:51.01Z</time></trkpt><trkpt lat="40.485271757142854" lon="9.721985604054225"><ele>150.33333333333334</ele><time>2026-04-30T07:57:52.01Z</time></trkpt><trkpt lat="40.4854099130483" lon="9.722093272298038"><ele>152.66666666666666</ele><time>2026-04-30T07:57:53.01Z</time></trkpt><trkpt lat="40.485538203378695" lon="9.722204134473332"><ele>155.0</ele><time>2026-04-30T07:57:54.01Z</time></trkpt><trkpt lat="40.48566044991583" lon="9.722309789807701"><ele>151.5</ele><time>2026-04-30T07:57:55.01Z</time></trkpt><trkpt lat="40.48578469084217" lon="9.722417258656364"><ele>148.0</ele><time>2026-04-30T07:57:56.01Z</time></trkpt><trkpt lat="40.4858965757447" lon="9.72251839753824"><ele>144.5</ele><time>2026-04-30T07:57:57.01Z</time></trkpt><trkpt lat="40.48600657029836" lon="9.72261090492108"><ele>141.0</ele><time>2026-04-30T07:57:58.01Z</time></trkpt><trkpt lat="40.48611987461528" lon="9.722690359930489"><ele>140.25</ele><time>2026-04-30T07:57:59.01Z</time></trkpt><trkpt lat="40.48622989932938" lon="9.722772299000539"><ele>139.5</ele><time>2026-04-30T07:58:00.01Z</time></trkpt><trkpt lat="40.4863433470864" lon="9.722805760077465"><ele>138.75</ele><time>2026-04-30T07:58:01.01Z</time></trkpt><trkpt lat="40.48645921136458" lon="9.722796335138908"><ele>138.0</ele><time>2026-04-30T07:58:02.01Z</time></trkpt><trkpt lat="40.486569289384924" lon="9.722780791922471"><ele>137.6</ele><time>2026-04-30T07:58:03.01Z</time></trkpt><trkpt lat="40.48667766679895" lon="9.722783722627291"><ele>137.20000000000002</ele><time>2026-04-30T07:58:04.011Z</time></trkpt><trkpt lat="40.48678214235605" lon="9.722762484848404"><ele>136.8</ele><time>2026-04-30T07:58:05.011Z</time></trkpt><trkpt lat="40.48687996137417" lon="9.722725674941847"><ele>136.4</ele><time>2026-04-30T07:58:06.011Z</time></trkpt><trkpt lat="40.48695955842859" lon="9.722715670322305"><ele>136.0</ele><time>2026-04-30T07:58:07.011Z</time></trkpt><trkpt lat="40.48702358496648" lon="9.72270849099656"><ele>135.16666666666669</ele><time>2026-04-30T07:58:08.011Z</time></trkpt><trkpt lat="40.48709921761819" lon="9.722708134995061"><ele>134.33333333333334</ele><time>2026-04-30T07:58:10.011Z</time></trkpt><trkpt lat="40.48718020159858" lon="9.722665155731413"><ele>133.5</ele><time>2026-04-30T07:59:55.012Z</time></trkpt><trkpt lat="40.4872871615629" lon="9.722675305521426"><ele>132.66666666666666</ele><time>2026-04-30T08:00:01.012Z</time></trkpt><trkpt lat="40.48735474323526" lon="9.722677149390162"><ele>131.83333333333331</ele><time>2026-04-30T08:00:02.012Z</time></trkpt><trkpt lat="40.4874333264618" lon="9.722690874078438"><ele>131.0</ele><time>2026-04-30T08:00:03.012Z</time></trkpt><trkpt lat="40.48751278663232" lon="9.722724946163737"><ele>130.2</ele><time>2026-04-30T08:00:04.012Z</time></trkpt><trkpt lat="40.48759582906853" lon="9.722779861017052"><ele>129.39999999999998</ele><time>2026-04-30T08:00:05.012Z</time></trkpt><trkpt lat="40.487677538328775" lon="9.722851949081981"><ele>128.6</ele><time>2026-04-30T08:00:06.012Z</time></trkpt><trkpt lat="40.48776187483461" lon="9.722936167720494"><ele>127.8</ele><time>2026-04-30T08:00:07.012Z</time></trkpt><trkpt lat="40.4878487908685" lon="9.723012780422927"><ele>127.0</ele><time>2026-04-30T08:00:08.012Z</time></trkpt><trkpt lat="40.48793736360102" lon="9.723077170521536"><ele>125.75</ele><time>2026-04-30T08:00:09.012Z</time></trkpt><trkpt lat="40.48803620582835" lon="9.723133314322741"><ele>124.5</ele><time>2026-04-30T08:00:10.012Z</time></trkpt><trkpt lat="40.48814437330882" lon="9.723180571110266"><ele>123.25</ele><time>2026-04-30T08:00:11.012Z</time></trkpt><trkpt lat="40.48826341791839" lon="9.723224713134845"><ele>122.0</ele><time>2026-04-30T08:00:12.012Z</time></trkpt><trkpt lat="40.48837977205293" lon="9.723260302393507"><ele>122.0</ele><time>2026-04-30T08:00:13.012Z</time></trkpt><trkpt lat="40.48849156240981" lon="9.723294690488704"><ele>121.99999999999999</ele><time>2026-04-30T08:00:14.012Z</time></trkpt><trkpt lat="40.48859285060335" lon="9.723326032802433"><ele>121.99999999999999</ele><time>2026-04-30T08:00:15.012Z</time></trkpt><trkpt lat="40.48869330752742" lon="9.72336121076701"><ele>122.0</ele><time>2026-04-30T08:00:16.012Z</time></trkpt><trkpt lat="40.48878913269437" lon="9.723412097316054"><ele>122.0</ele><time>2026-04-30T08:00:17.012Z</time></trkpt><trkpt lat="40.48887722005616" lon="9.723478528867908"><ele>120.0</ele><time>2026-04-30T08:00:18.012Z</time></trkpt><trkpt lat="40.488957397923684" lon="9.723568314025838"><ele>117.99999999999999</ele><time>2026-04-30T08:00:19.012Z</time></trkpt><trkpt lat="40.48903298549903" lon="9.72366435871477"><ele>115.99999999999999</ele><time>2026-04-30T08:00:20.012Z</time></trkpt><trkpt lat="40.48910380766344" lon="9.723751530699236"><ele>114.0</ele><time>2026-04-30T08:00:21.012Z</time></trkpt><trkpt lat="40.48917040019356" lon="9.723829208025135"><ele>112.0</ele><time>2026-04-30T08:00:22.012Z</time></trkpt><trkpt lat="40.48923582030717" lon="9.723876815769122"><ele>112.00000000000001</ele><time>2026-04-30T08:00:23.012Z</time></trkpt><trkpt lat="40.489297320348946" lon="9.723899130283927"><ele>112.0</ele><time>2026-04-30T08:00:24.012Z</time></trkpt><trkpt lat="40.489365029359455" lon="9.72388714276218"><ele>112.0</ele><time>2026-04-30T08:00:25.012Z</time></trkpt><trkpt lat="40.48943586035212" lon="9.723851997106957"><ele>112.0</ele><time>2026-04-30T08:00:26.012Z</time></trkpt><trkpt lat="40.4895187038053" lon="9.72379886028298"><ele>112.00000000000001</ele><time>2026-04-30T08:00:27.012Z</time></trkpt><trkpt lat="40.48960702046754" lon="9.723737059029334"><ele>112.0</ele><time>2026-04-30T08:00:28.012Z</time></trkpt><trkpt lat="40.48969905673865" lon="9.723674773221898"><ele>111.75</ele><time>2026-04-30T08:00:29.012Z</time></trkpt><trkpt lat="40.489801123870535" lon="9.723598458210303"><ele>111.5</ele><time>2026-04-30T08:00:30.012Z</time></trkpt><trkpt lat="40.4899017490783" lon="9.723518856895552"><ele>111.25</ele><time>2026-04-30T08:00:31.012Z</time></trkpt><trkpt lat="40.48999961797014" lon="9.723432285267357"><ele>111.0</ele><time>2026-04-30T08:00:32.012Z</time></trkpt><trkpt lat="40.490091148770794" lon="9.723352840825568"><ele>109.25</ele><time>2026-04-30T08:00:33.012Z</time></trkpt><trkpt lat="40.49018704573797" lon="9.723277895222138"><ele>107.5</ele><time>2026-04-30T08:00:34.012Z</time></trkpt><trkpt lat="40.49029438680716" lon="9.723198585168811"><ele>105.75</ele><time>2026-04-30T08:00:35.012Z</time></trkpt><trkpt lat="40.49040946694628" lon="9.723109520467595"><ele>104.0</ele><time>2026-04-30T08:00:36.012Z</time></trkpt><trkpt lat="40.49052422055978" lon="9.723017157395086"><ele>103.75</ele><time>2026-04-30T08:00:37.012Z</time></trkpt><trkpt lat="40.49063824424931" lon="9.722925895028627"><ele>103.5</ele><time>2026-04-30T08:00:38.012Z</time></trkpt><trkpt lat="40.49075414504648" lon="9.722839939046754"><ele>103.25</ele><time>2026-04-30T08:00:39.012Z</time></trkpt><trkpt lat="40.490868514599754" lon="9.722759888936078"><ele>103.0</ele><time>2026-04-30T08:00:40.012Z</time></trkpt><trkpt lat="40.49097617045307" lon="9.72267726174325"><ele>103.2</ele><time>2026-04-30T08:00:41.012Z</time></trkpt><trkpt lat="40.49106907497717" lon="9.722619277624428"><ele>103.4</ele><time>2026-04-30T08:00:42.012Z</time></trkpt><trkpt lat="40.49115863012249" lon="9.722568456464677"><ele>103.60000000000001</ele><time>2026-04-30T08:00:43.012Z</time></trkpt><trkpt lat="40.49124884193184" lon="9.722521990676679"><ele>103.80000000000001</ele><time>2026-04-30T08:00:44.012Z</time></trkpt><trkpt lat="40.49133290756966" lon="9.722469400671228"><ele>104.0</ele><time>2026-04-30T08:00:45.012Z</time></trkpt><trkpt lat="40.49140832894891" lon="9.72241981512246"><ele>104.0</ele><time>2026-04-30T08:00:46.012Z</time></trkpt><trkpt lat="40.49147522472762" lon="9.722378734253494"><ele>104.0</ele><time>2026-04-30T08:00:47.012Z</time></trkpt><trkpt lat="40.49159722278939" lon="9.722373280109741"><ele>104.0</ele><time>2026-04-30T08:00:49.012Z</time></trkpt><trkpt lat="40.49167020226319" lon="9.722409207858696"><ele>104.0</ele><time>2026-04-30T08:00:50.012Z</time></trkpt><trkpt lat="40.49174654180391" lon="9.722468424396983"><ele>104.0</ele><time>2026-04-30T08:00:51.012Z</time></trkpt><trkpt lat="40.49183227069308" lon="9.722540863124973"><ele>104.0</ele><time>2026-04-30T08:00:52.012Z</time></trkpt><trkpt lat="40.49193532336818" lon="9.722618180996365"><ele>104.0</ele><time>2026-04-30T08:00:53.012Z</time></trkpt><trkpt lat="40.492049006683594" lon="9.722700066900698"><ele>104.0</ele><time>2026-04-30T08:00:54.012Z</time></trkpt><trkpt lat="40.492164885751336" lon="9.722792318279094"><ele>104.0</ele><time>2026-04-30T08:00:55.012Z</time></trkpt><trkpt lat="40.49228666401168" lon="9.72289013401928"><ele>103.0</ele><time>2026-04-30T08:00:56.012Z</time></trkpt><trkpt lat="40.4924106769415" lon="9.722988247203906"><ele>102.0</ele><time>2026-04-30T08:00:57.012Z</time></trkpt><trkpt lat="40.49254047614976" lon="9.723089102717134"><ele>101.0</ele><time>2026-04-30T08:00:58.012Z</time></trkpt><trkpt lat="40.492676126678596" lon="9.72319821014265"><ele>101.0</ele><time>2026-04-30T08:00:59.012Z</time></trkpt><trkpt lat="40.49281164707807" lon="9.723317731610491"><ele>101.0</ele><time>2026-04-30T08:01:00.012Z</time></trkpt><trkpt lat="40.492951892507456" lon="9.723446147930753"><ele>101.0</ele><time>2026-04-30T08:01:01.012Z</time></trkpt><trkpt lat="40.49309163225881" lon="9.723583453964345"><ele>100.66666666666666</ele><time>2026-04-30T08:01:02.012Z</time></trkpt><trkpt lat="40.49323739790801" lon="9.723734639294868"><ele>100.33333333333334</ele><time>2026-04-30T08:01:03.012Z</time></trkpt><trkpt lat="40.49338012040301" lon="9.723891509749501"><ele>100.0</ele><time>2026-04-30T08:01:04.012Z</time></trkpt><trkpt lat="40.49352170233962" lon="9.724051197092413"><ele>100.0</ele><time>2026-04-30T08:01:05.012Z</time></trkpt><trkpt lat="40.4936592301358" lon="9.724215523022902"><ele>100.0</ele><time>2026-04-30T08:01:06.012Z</time></trkpt><trkpt lat="40.49379667643326" lon="9.724387326708358"><ele>100.0</ele><time>2026-04-30T08:01:07.012Z</time></trkpt><trkpt lat="40.49392823817487" lon="9.724563199324686"><ele>99.66666666666667</ele><time>2026-04-30T08:01:08.012Z</time></trkpt><trkpt lat="40.49405308405451" lon="9.724741613201923"><ele>99.33333333333334</ele><time>2026-04-30T08:01:09.012Z</time></trkpt><trkpt lat="40.49417820277948" lon="9.724923363819975"><ele>99.0</ele><time>2026-04-30T08:01:10.012Z</time></trkpt><trkpt lat="40.49429083082873" lon="9.725100475816738"><ele>97.66666666666667</ele><time>2026-04-30T08:01:11.012Z</time></trkpt><trkpt lat="40.49439427388912" lon="9.725268432094863"><ele>96.33333333333334</ele><time>2026-04-30T08:01:12.012Z</time></trkpt><trkpt lat="40.494486806610524" lon="9.725426456502902"><ele>95.0</ele><time>2026-04-30T08:01:13.012Z</time></trkpt><trkpt lat="40.49457144436786" lon="9.725577499608779"><ele>95.0</ele><time>2026-04-30T08:01:14.012Z</time></trkpt><trkpt lat="40.49464953863016" lon="9.72571923079001"><ele>95.0</ele><time>2026-04-30T08:01:15.012Z</time></trkpt><trkpt lat="40.49472325991962" lon="9.72584910137497"><ele>95.0</ele><time>2026-04-30T08:01:16.013Z</time></trkpt><trkpt lat="40.49479265101395" lon="9.725963068674917"><ele>95.0</ele><time>2026-04-30T08:01:17.013Z</time></trkpt><trkpt lat="40.49485384792315" lon="9.726062035437156"><ele>95.0</ele><time>2026-04-30T08:01:18.013Z</time></trkpt><trkpt lat="40.494904692745365" lon="9.726131918824626"><ele>95.0</ele><time>2026-04-30T08:01:19.013Z</time></trkpt><trkpt lat="40.494975220668934" lon="9.726183841398424"><ele>95.0</ele><time>2026-04-30T08:01:21.013Z</time></trkpt><trkpt lat="40.495021055784534" lon="9.726116796207434"><ele>95.0</ele><time>2026-04-30T08:01:57.013Z</time></trkpt><trkpt lat="40.495083822991795" lon="9.726089669043578"><ele>95.0</ele><time>2026-04-30T08:02:44.997Z</time></trkpt><trkpt lat="40.4951450099313" lon="9.726042496029619"><ele>95.0</ele><time>2026-04-30T08:02:46.997Z</time></trkpt><trkpt lat="40.49523691859637" lon="9.725963780980731"><ele>95.16666666666667</ele><time>2026-04-30T08:02:48.997Z</time></trkpt><trkpt lat="40.49529948103172" lon="9.725914302441709"><ele>95.33333333333334</ele><time>2026-04-30T08:02:49.996Z</time></trkpt><trkpt lat="40.49536595452195" lon="9.725862720097801"><ele>95.5</ele><time>2026-04-30T08:02:50.996Z</time></trkpt><trkpt lat="40.49542718477207" lon="9.725796791236858"><ele>95.66666666666667</ele><time>2026-04-30T08:02:51.996Z</time></trkpt><trkpt lat="40.495487118731894" lon="9.725733591993631"><ele>95.83333333333333</ele><time>2026-04-30T08:02:52.996Z</time></trkpt><trkpt lat="40.495553698603736" lon="9.725678814083869"><ele>96.0</ele><time>2026-04-30T08:02:53.997Z</time></trkpt><trkpt lat="40.49560883268397" lon="9.725616507493879"><ele>96.33333333333333</ele><time>2026-04-30T08:02:54.997Z</time></trkpt><trkpt lat="40.49566159743927" lon="9.725552339067413"><ele>96.66666666666666</ele><time>2026-04-30T08:02:55.996Z</time></trkpt><trkpt lat="40.49574356105943" lon="9.72545765670652"><ele>97.0</ele><time>2026-04-30T08:02:57.997Z</time></trkpt><trkpt lat="40.49581034992953" lon="9.725404060393513"><ele>97.33333333333333</ele><time>2026-04-30T08:02:59.996Z</time></trkpt><trkpt lat="40.495874620199785" lon="9.725368258236877"><ele>97.66666666666666</ele><time>2026-04-30T08:04:02.996Z</time></trkpt><trkpt lat="40.49593762110592" lon="9.725294821338027"><ele>98.0</ele><time>2026-04-30T08:05:16.995Z</time></trkpt><trkpt lat="40.496031619571674" lon="9.725205400122709"><ele>98.57142857142857</ele><time>2026-04-30T08:05:18.995Z</time></trkpt><trkpt lat="40.49608330026977" lon="9.725152303568782"><ele>99.14285714285714</ele><time>2026-04-30T08:05:19.995Z</time></trkpt><trkpt lat="40.496138226771855" lon="9.72509637329402"><ele>99.71428571428572</ele><time>2026-04-30T08:05:20.995Z</time></trkpt><trkpt lat="40.496193086810656" lon="9.725043422921651"><ele>100.28571428571428</ele><time>2026-04-30T08:05:21.995Z</time></trkpt><trkpt lat="40.49624944687081" lon="9.724988244736014"><ele>100.85714285714286</ele><time>2026-04-30T08:05:22.995Z</time></trkpt><trkpt lat="40.49630588874453" lon="9.724928797397036"><ele>101.42857142857143</ele><time>2026-04-30T08:05:23.995Z</time></trkpt><trkpt lat="40.496368192356805" lon="9.724863545502494"><ele>102.0</ele><time>2026-04-30T08:05:24.995Z</time></trkpt><trkpt lat="40.49643100490373" lon="9.724797978957538"><ele>102.0</ele><time>2026-04-30T08:05:25.995Z</time></trkpt><trkpt lat="40.496496451524195" lon="9.724733231956586"><ele>102.0</ele><time>2026-04-30T08:05:26.995Z</time></trkpt><trkpt lat="40.49656178880563" lon="9.724672106897867"><ele>102.0</ele><time>2026-04-30T08:05:27.995Z</time></trkpt><trkpt lat="40.49662841747312" lon="9.72461316446299"><ele>102.0</ele><time>2026-04-30T08:05:28.995Z</time></trkpt><trkpt lat="40.49668591101019" lon="9.724548537251087"><ele>102.0</ele><time>2026-04-30T08:05:29.995Z</time></trkpt><trkpt lat="40.49673973392002" lon="9.724477642982198"><ele>102.0</ele><time>2026-04-30T08:05:30.995Z</time></trkpt><trkpt lat="40.49678977009948" lon="9.724387149274605"><ele>103.66666666666667</ele><time>2026-04-30T08:05:31.995Z</time></trkpt><trkpt lat="40.49683531855398" lon="9.72429210118215"><ele>105.33333333333334</ele><time>2026-04-30T08:05:32.995Z</time></trkpt><trkpt lat="40.49688835059033" lon="9.724206643471044"><ele>107.0</ele><time>2026-04-30T08:05:33.995Z</time></trkpt><trkpt lat="40.49693910850076" lon="9.724132372260348"><ele>108.66666666666667</ele><time>2026-04-30T08:05:34.995Z</time></trkpt><trkpt lat="40.496993014121465" lon="9.7240668676708"><ele>110.33333333333334</ele><time>2026-04-30T08:05:35.996Z</time></trkpt><trkpt lat="40.49704607627648" lon="9.724014075558957"><ele>112.0</ele><time>2026-04-30T08:05:36.996Z</time></trkpt><trkpt lat="40.49709143735274" lon="9.723953307728717"><ele>112.16666666666667</ele><time>2026-04-30T08:05:37.996Z</time></trkpt><trkpt lat="40.497168951876596" lon="9.723881984563745"><ele>112.33333333333334</ele><time>2026-04-30T08:05:39.996Z</time></trkpt><trkpt lat="40.4972741035387" lon="9.723870494533218"><ele>112.5</ele><time>2026-04-30T08:05:41.996Z</time></trkpt><trkpt lat="40.49733643610271" lon="9.72383157193204"><ele>112.66666666666666</ele><time>2026-04-30T08:05:43.996Z</time></trkpt><trkpt lat="40.49737684161538" lon="9.723711976060773"><ele>112.83333333333333</ele><time>2026-04-30T08:05:45.996Z</time></trkpt><trkpt lat="40.497385765815146" lon="9.723622705657382"><ele>113.0</ele><time>2026-04-30T08:05:46.996Z</time></trkpt><trkpt lat="40.49740249785724" lon="9.723531198322108"><ele>112.60000000000001</ele><time>2026-04-30T08:05:47.996Z</time></trkpt><trkpt lat="40.497463915264625" lon="9.723387658303599"><ele>112.20000000000002</ele><time>2026-04-30T08:05:49.996Z</time></trkpt><trkpt lat="40.49750025186872" lon="9.72331585451665"><ele>111.8</ele><time>2026-04-30T08:05:50.996Z</time></trkpt><trkpt lat="40.49753225068038" lon="9.723190668958829"><ele>111.4</ele><time>2026-04-30T08:05:52.996Z</time></trkpt><trkpt lat="40.49753373927143" lon="9.723077164357317"><ele>111.0</ele><time>2026-04-30T08:05:54.996Z</time></trkpt><trkpt lat="40.49754989999769" lon="9.722937737851042"><ele>111.0</ele><time>2026-04-30T08:05:56.996Z</time></trkpt><trkpt lat="40.4975927380036" lon="9.722872790909587"><ele>111.0</ele><time>2026-04-30T08:05:59.996Z</time></trkpt><trkpt lat="40.49764106544543" lon="9.722787891265122"><ele>111.0</ele><time>2026-04-30T08:06:01.996Z</time></trkpt><trkpt lat="40.49769081816216" lon="9.722705418238217"><ele>111.0</ele><time>2026-04-30T08:06:02.996Z</time></trkpt><trkpt lat="40.497745404819604" lon="9.722629528507056"><ele>111.0</ele><time>2026-04-30T08:06:03.996Z</time></trkpt><trkpt lat="40.49782043455024" lon="9.722548803431359"><ele>111.0</ele><time>2026-04-30T08:06:04.996Z</time></trkpt><trkpt lat="40.49791052649085" lon="9.722426751131923"><ele>112.4</ele><time>2026-04-30T08:06:05.996Z</time></trkpt><trkpt lat="40.49797120383573" lon="9.722348105399705"><ele>113.8</ele><time>2026-04-30T08:06:06.996Z</time></trkpt><trkpt lat="40.49801461496595" lon="9.722238195127913"><ele>115.20000000000002</ele><time>2026-04-30T08:06:08.996Z</time></trkpt><trkpt lat="40.49799701767295" lon="9.722082422492125"><ele>116.60000000000001</ele><time>2026-04-30T08:06:10.996Z</time></trkpt><trkpt lat="40.49800215901377" lon="9.721987214325898"><ele>118.0</ele><time>2026-04-30T08:06:11.996Z</time></trkpt><trkpt lat="40.498030975681225" lon="9.721870991516443"><ele>118.2</ele><time>2026-04-30T08:06:12.996Z</time></trkpt><trkpt lat="40.498067752421555" lon="9.721751687594278"><ele>118.4</ele><time>2026-04-30T08:06:13.996Z</time></trkpt><trkpt lat="40.4981088812827" lon="9.721624968435172"><ele>118.60000000000001</ele><time>2026-04-30T08:06:14.996Z</time></trkpt><trkpt lat="40.49816446936592" lon="9.721491543751345"><ele>118.80000000000001</ele><time>2026-04-30T08:06:15.996Z</time></trkpt><trkpt lat="40.49822923858933" lon="9.721387961942897"><ele>119.0</ele><time>2026-04-30T08:06:16.996Z</time></trkpt><trkpt lat="40.4982559562823" lon="9.721277397112186"><ele>118.99999999999999</ele><time>2026-04-30T08:06:18.996Z</time></trkpt><trkpt lat="40.49823498738552" lon="9.721174507683727"><ele>119.0</ele><time>2026-04-30T08:06:19.996Z</time></trkpt><trkpt lat="40.498209611565876" lon="9.721062122855745"><ele>119.0</ele><time>2026-04-30T08:06:20.996Z</time></trkpt><trkpt lat="40.498186044225044" lon="9.720959106239697"><ele>119.0</ele><time>2026-04-30T08:06:21.996Z</time></trkpt><trkpt lat="40.498167819701905" lon="9.72086556355778"><ele>118.99999999999999</ele><time>2026-04-30T08:06:22.996Z</time></trkpt><trkpt lat="40.49816096235942" lon="9.720772356414363"><ele>119.0</ele><time>2026-04-30T08:06:23.996Z</time></trkpt><trkpt lat="40.498169900667705" lon="9.720689985868669"><ele>119.4</ele><time>2026-04-30T08:06:24.996Z</time></trkpt><trkpt lat="40.49820644161347" lon="9.72055747557281"><ele>119.80000000000001</ele><time>2026-04-30T08:06:26.996Z</time></trkpt><trkpt lat="40.49820421151019" lon="9.720438066992267"><ele>120.19999999999999</ele><time>2026-04-30T08:06:28.996Z</time></trkpt><trkpt lat="40.498181595487274" lon="9.720309092907057"><ele>120.6</ele><time>2026-04-30T08:06:30.996Z</time></trkpt><trkpt lat="40.49819193391018" lon="9.720173324708467"><ele>121.0</ele><time>2026-04-30T08:06:32.996Z</time></trkpt><trkpt lat="40.498213500956886" lon="9.720045753871387"><ele>121.4</ele><time>2026-04-30T08:06:34.996Z</time></trkpt><trkpt lat="40.49826420550917" lon="9.719906874405803"><ele>121.8</ele><time>2026-04-30T08:06:36.996Z</time></trkpt><trkpt lat="40.498330366291114" lon="9.719781258395647"><ele>122.20000000000002</ele><time>2026-04-30T08:06:38.996Z</time></trkpt><trkpt lat="40.49842103343526" lon="9.719731687612468"><ele>122.60000000000001</ele><time>2026-04-30T08:06:40.996Z</time></trkpt><trkpt lat="40.49847823317028" lon="9.719789824377841"><ele>123.0</ele><time>2026-04-30T08:06:42.996Z</time></trkpt><trkpt lat="40.498521856902734" lon="9.719935214970622"><ele>123.0</ele><time>2026-04-30T08:06:44.996Z</time></trkpt><trkpt lat="40.49855623480814" lon="9.720055024922642"><ele>123.0</ele><time>2026-04-30T08:06:45.996Z</time></trkpt><trkpt lat="40.498581587146866" lon="9.720195492913435"><ele>123.0</ele><time>2026-04-30T08:06:46.996Z</time></trkpt><trkpt lat="40.4986307330375" lon="9.719149237318183"><ele>123.71428571428572</ele><time>2026-04-30T08:06:47.996Z</time></trkpt><trkpt lat="40.49868474159753" lon="9.719103234302134"><ele>124.42857142857143</ele><time>2026-04-30T08:06:48.996Z</time></trkpt><trkpt lat="40.49873070003449" lon="9.719040702987852"><ele>125.14285714285714</ele><time>2026-04-30T08:06:49.996Z</time></trkpt><trkpt lat="40.498774315412234" lon="9.718980987386445"><ele>125.85714285714286</ele><time>2026-04-30T08:06:50.996Z</time></trkpt><trkpt lat="40.498816653808255" lon="9.718897681238346"><ele>126.57142857142856</ele><time>2026-04-30T08:06:52.996Z</time></trkpt><trkpt lat="40.49880571140558" lon="9.718801633145349"><ele>127.28571428571428</ele><time>2026-04-30T08:06:54.996Z</time></trkpt><trkpt lat="40.498819837181074" lon="9.718679721549249"><ele>128.0</ele><time>2026-04-30T08:06:56.996Z</time></trkpt><trkpt lat="40.49886688762907" lon="9.718529495275627"><ele>129.71428571428572</ele><time>2026-04-30T08:06:58.996Z</time></trkpt><trkpt lat="40.498901445570205" lon="9.718451868055203"><ele>131.42857142857142</ele><time>2026-04-30T08:06:59.996Z</time></trkpt><trkpt lat="40.4989357291742" lon="9.71837505648751"><ele>133.14285714285714</ele><time>2026-04-30T08:07:00.995Z</time></trkpt><trkpt lat="40.498955157654436" lon="9.71829409582567"><ele>134.85714285714286</ele><time>2026-04-30T08:07:01.994Z</time></trkpt><trkpt lat="40.49897160213524" lon="9.718206071540646"><ele>136.57142857142856</ele><time>2026-04-30T08:07:02.994Z</time></trkpt><trkpt lat="40.49897822153868" lon="9.718108378675995"><ele>138.28571428571428</ele><time>2026-04-30T08:07:03.994Z</time></trkpt><trkpt lat="40.498988259380475" lon="9.71800353497722"><ele>140.0</ele><time>2026-04-30T08:07:04.994Z</time></trkpt><trkpt lat="40.499009749732274" lon="9.71790633635724"><ele>140.0</ele><time>2026-04-30T08:07:05.994Z</time></trkpt><trkpt lat="40.499044020576676" lon="9.717813636624822"><ele>140.0</ele><time>2026-04-30T08:07:06.995Z</time></trkpt><trkpt lat="40.499085994698554" lon="9.717728952498028"><ele>140.0</ele><time>2026-04-30T08:07:07.994Z</time></trkpt><trkpt lat="40.49911994511263" lon="9.717634138718623"><ele>140.0</ele><time>2026-04-30T08:07:08.994Z</time></trkpt><trkpt lat="40.499142235835215" lon="9.71753079925071"><ele>140.0</ele><time>2026-04-30T08:07:09.995Z</time></trkpt><trkpt lat="40.499146564740414" lon="9.717415224261533"><ele>140.0</ele><time>2026-04-30T08:07:10.994Z</time></trkpt><trkpt lat="40.49915637428551" lon="9.717317393279252"><ele>138.5</ele><time>2026-04-30T08:07:11.994Z</time></trkpt><trkpt lat="40.49915850791353" lon="9.717220639811888"><ele>137.0</ele><time>2026-04-30T08:07:12.994Z</time></trkpt><trkpt lat="40.49918833664041" lon="9.717135355506054"><ele>135.5</ele><time>2026-04-30T08:07:13.994Z</time></trkpt><trkpt lat="40.49920967170094" lon="9.717032775639169"><ele>134.0</ele><time>2026-04-30T08:07:14.994Z</time></trkpt><trkpt lat="40.499226270204204" lon="9.71694044408827"><ele>132.5</ele><time>2026-04-30T08:07:15.994Z</time></trkpt><trkpt lat="40.49920916175884" lon="9.716833610019227"><ele>131.0</ele><time>2026-04-30T08:07:16.994Z</time></trkpt><trkpt lat="40.49918554617411" lon="9.716684504633202"><ele>130.8</ele><time>2026-04-30T08:07:18.994Z</time></trkpt><trkpt lat="40.49919006005087" lon="9.716520804844412"><ele>130.6</ele><time>2026-04-30T08:07:20.994Z</time></trkpt><trkpt lat="40.49915673261853" lon="9.716382140791787"><ele>130.4</ele><time>2026-04-30T08:07:22.994Z</time></trkpt><trkpt lat="40.49915688238233" lon="9.716281676103316"><ele>130.2</ele><time>2026-04-30T08:07:25.994Z</time></trkpt><trkpt lat="40.49919156291137" lon="9.716162757921495"><ele>130.0</ele><time>2026-04-30T08:07:27.994Z</time></trkpt><trkpt lat="40.499190248853644" lon="9.71603837191553"><ele>130.0</ele><time>2026-04-30T08:07:29.994Z</time></trkpt><trkpt lat="40.4991698590531" lon="9.715945122629492"><ele>130.0</ele><time>2026-04-30T08:07:31.994Z</time></trkpt><trkpt lat="40.49913113071915" lon="9.715823924620521"><ele>130.0</ele><time>2026-04-30T08:07:33.995Z</time></trkpt><trkpt lat="40.499113909429546" lon="9.715701714799373"><ele>130.0</ele><time>2026-04-30T08:07:35.995Z</time></trkpt><trkpt lat="40.499103157934165" lon="9.715548326170344"><ele>130.0</ele><time>2026-04-30T08:07:37.995Z</time></trkpt><trkpt lat="40.499086164221126" lon="9.715404771243355"><ele>130.0</ele><time>2026-04-30T08:07:39.995Z</time></trkpt><trkpt lat="40.499050815337704" lon="9.715262233985861"><ele>130.0</ele><time>2026-04-30T08:07:41.995Z</time></trkpt><trkpt lat="40.49900873758087" lon="9.71512773659707"><ele>130.0</ele><time>2026-04-30T08:07:43.995Z</time></trkpt><trkpt lat="40.498986244336635" lon="9.715008553759109"><ele>130.0</ele><time>2026-04-30T08:07:45.995Z</time></trkpt><trkpt lat="40.49889155738097" lon="9.714930015612005"><ele>130.0</ele><time>2026-04-30T08:07:47.995Z</time></trkpt><trkpt lat="40.49879706484877" lon="9.71489265426654"><ele>131.83333333333334</ele><time>2026-04-30T08:07:49.995Z</time></trkpt><trkpt lat="40.49878829753063" lon="9.714763709754633"><ele>133.66666666666669</ele><time>2026-04-30T08:07:52.995Z</time></trkpt><trkpt lat="40.49880625214748" lon="9.714650036014849"><ele>135.5</ele><time>2026-04-30T08:07:54.995Z</time></trkpt><trkpt lat="40.49874603318396" lon="9.714570030868146"><ele>137.33333333333334</ele><time>2026-04-30T08:07:56.995Z</time></trkpt><trkpt lat="40.4987482203283" lon="9.71446861331933"><ele>139.16666666666666</ele><time>2026-04-30T08:07:59.995Z</time></trkpt><trkpt lat="40.49874052473838" lon="9.714343676046875"><ele>141.0</ele><time>2026-04-30T08:08:02.995Z</time></trkpt><trkpt lat="40.49868185935286" lon="9.714237961598714"><ele>141.66666666666666</ele><time>2026-04-30T08:08:05.995Z</time></trkpt><trkpt lat="40.4986332583293" lon="9.714178400077333"><ele>142.33333333333334</ele><time>2026-04-30T08:08:07.995Z</time></trkpt><trkpt lat="40.4986518880325" lon="9.71407276692392"><ele>143.0</ele><time>2026-04-30T08:08:10.995Z</time></trkpt><trkpt lat="40.49865149044641" lon="9.713986727735708"><ele>143.66666666666669</ele><time>2026-04-30T08:08:12.995Z</time></trkpt><trkpt lat="40.4986525773166" lon="9.713877702370121"><ele>144.33333333333334</ele><time>2026-04-30T08:08:15.995Z</time></trkpt><trkpt lat="40.49868772089262" lon="9.713777575577573"><ele>145.0</ele><time>2026-04-30T08:08:18.995Z</time></trkpt><trkpt lat="40.498753892250306" lon="9.713666434474222"><ele>146.66666666666669</ele><time>2026-04-30T08:08:21.995Z</time></trkpt><trkpt lat="40.49877612786135" lon="9.71357717822789"><ele>148.33333333333334</ele><time>2026-04-30T08:08:23.995Z</time></trkpt><trkpt lat="40.49876023299438" lon="9.713482570586184"><ele>150.0</ele><time>2026-04-30T08:08:25.995Z</time></trkpt><trkpt lat="40.498778181745486" lon="9.713395297728951"><ele>151.66666666666666</ele><time>2026-04-30T08:08:27.995Z</time></trkpt><trkpt lat="40.49876034178259" lon="9.713269631420214"><ele>153.33333333333331</ele><time>2026-04-30T08:09:05.995Z</time></trkpt><trkpt lat="40.49877037982054" lon="9.713159888724268"><ele>155.0</ele><time>2026-04-30T08:09:07.994Z</time></trkpt><trkpt lat="40.49877313150495" lon="9.713046990457938"><ele>155.5</ele><time>2026-04-30T08:09:09.994Z</time></trkpt><trkpt lat="40.49876379730525" lon="9.712944019427734"><ele>156.0</ele><time>2026-04-30T08:09:11.993Z</time></trkpt><trkpt lat="40.498768087756744" lon="9.712835062842073"><ele>156.5</ele><time>2026-04-30T08:09:14.994Z</time></trkpt><trkpt lat="40.498782138857585" lon="9.71273753413626"><ele>157.0</ele><time>2026-04-30T08:09:17.993Z</time></trkpt><trkpt lat="40.49881962139004" lon="9.712583104218565"><ele>157.5</ele><time>2026-04-30T08:09:19.993Z</time></trkpt><trkpt lat="40.498832728163656" lon="9.712486121035276"><ele>158.0</ele><time>2026-04-30T08:09:20.993Z</time></trkpt><trkpt lat="40.49885013891337" lon="9.712404523304379"><ele>158.16666666666666</ele><time>2026-04-30T08:09:21.993Z</time></trkpt><trkpt lat="40.49887471671364" lon="9.712248798856688"><ele>158.33333333333331</ele><time>2026-04-30T08:09:23.993Z</time></trkpt><trkpt lat="40.498882644888454" lon="9.712160962466946"><ele>158.5</ele><time>2026-04-30T08:09:24.993Z</time></trkpt><trkpt lat="40.49888930444945" lon="9.712061995556187"><ele>158.66666666666666</ele><time>2026-04-30T08:09:25.993Z</time></trkpt><trkpt lat="40.498891708965104" lon="9.711965086219172"><ele>158.83333333333334</ele><time>2026-04-30T08:09:26.993Z</time></trkpt><trkpt lat="40.498884451832495" lon="9.711867066209136"><ele>159.0</ele><time>2026-04-30T08:09:27.993Z</time></trkpt><trkpt lat="40.498889536428635" lon="9.711709156142085"><ele>159.8</ele><time>2026-04-30T08:09:29.993Z</time></trkpt><trkpt lat="40.498882181303074" lon="9.711587370780935"><ele>160.60000000000002</ele><time>2026-04-30T08:09:31.993Z</time></trkpt><trkpt lat="40.498861323414566" lon="9.711467214110305"><ele>161.4</ele><time>2026-04-30T08:09:33.993Z</time></trkpt><trkpt lat="40.498824750558136" lon="9.711313781866135"><ele>162.20000000000002</ele><time>2026-04-30T08:09:35.993Z</time></trkpt><trkpt lat="40.49881256618053" lon="9.711231806842452"><ele>163.0</ele><time>2026-04-30T08:09:36.993Z</time></trkpt><trkpt lat="40.498794581896135" lon="9.711106812534188"><ele>161.8</ele><time>2026-04-30T08:09:38.993Z</time></trkpt><trkpt lat="40.49872449972243" lon="9.710974305723559"><ele>160.60000000000002</ele><time>2026-04-30T08:09:40.993Z</time></trkpt><trkpt lat="40.49869727639696" lon="9.71089139166299"><ele>159.39999999999998</ele><time>2026-04-30T08:09:41.993Z</time></trkpt><trkpt lat="40.49866443072083" lon="9.710758200187135"><ele>158.2</ele><time>2026-04-30T08:09:43.993Z</time></trkpt><trkpt lat="40.49862332053883" lon="9.710593626542831"><ele>157.0</ele><time>2026-04-30T08:09:45.993Z</time></trkpt><trkpt lat="40.49860516346314" lon="9.710505178431857"><ele>157.0</ele><time>2026-04-30T08:09:46.994Z</time></trkpt><trkpt lat="40.49859403749627" lon="9.71042200724154"><ele>157.0</ele><time>2026-04-30T08:09:47.994Z</time></trkpt><trkpt lat="40.4985985364678" lon="9.710273483995264"><ele>157.0</ele><time>2026-04-30T08:09:49.994Z</time></trkpt><trkpt lat="40.4986120738005" lon="9.710154952801616"><ele>157.0</ele><time>2026-04-30T08:09:51.994Z</time></trkpt><trkpt lat="40.498639605046144" lon="9.710066720195925"><ele>157.0</ele><time>2026-04-30T08:09:53.994Z</time></trkpt><trkpt lat="40.49869373589785" lon="9.709923094375151"><ele>157.0</ele><time>2026-04-30T08:09:55.994Z</time></trkpt><trkpt lat="40.4987199603321" lon="9.709847747287423"><ele>157.0</ele><time>2026-04-30T08:09:56.994Z</time></trkpt><trkpt lat="40.49876642541725" lon="9.70974669292288"><ele>157.0</ele><time>2026-04-30T08:09:58.994Z</time></trkpt><trkpt lat="40.49882266586496" lon="9.709618290233092"><ele>157.0</ele><time>2026-04-30T08:10:00.994Z</time></trkpt><trkpt lat="40.498848453243724" lon="9.709496455755746"><ele>157.0</ele><time>2026-04-30T08:10:02.994Z</time></trkpt><trkpt lat="40.49884725129587" lon="9.709375448806426"><ele>157.0</ele><time>2026-04-30T08:10:04.994Z</time></trkpt><trkpt lat="40.49884457508753" lon="9.709279148878034"><ele>157.0</ele><time>2026-04-30T08:10:06.994Z</time></trkpt><trkpt lat="40.498860532478524" lon="9.709169859921081"><ele>157.0</ele><time>2026-04-30T08:10:08.994Z</time></trkpt><trkpt lat="40.49888450289829" lon="9.709068581979162"><ele>157.0</ele><time>2026-04-30T08:10:10.994Z</time></trkpt><trkpt lat="40.49891403755752" lon="9.708994784558742"><ele>157.0</ele><time>2026-04-30T08:10:11.994Z</time></trkpt><trkpt lat="40.49893456385058" lon="9.708893073769424"><ele>157.0</ele><time>2026-04-30T08:10:12.994Z</time></trkpt><trkpt lat="40.49894365207206" lon="9.708799398109687"><ele>157.0</ele><time>2026-04-30T08:10:13.994Z</time></trkpt><trkpt lat="40.498957497952404" lon="9.708663661345284"><ele>157.0</ele><time>2026-04-30T08:10:15.994Z</time></trkpt><trkpt lat="40.49897453987209" lon="9.70856547440702"><ele>157.0</ele><time>2026-04-30T08:10:18.994Z</time></trkpt><trkpt lat="40.499001447089555" lon="9.708483419693279"><ele>157.0</ele><time>2026-04-30T08:10:22.994Z</time></trkpt><trkpt lat="40.49903269765001" lon="9.708398648600605"><ele>157.0</ele><time>2026-04-30T08:10:25.994Z</time></trkpt><trkpt lat="40.49906785063269" lon="9.708296230417133"><ele>157.0</ele><time>2026-04-30T08:10:27.994Z</time></trkpt><trkpt lat="40.49907083300384" lon="9.708176512140437"><ele>158.2</ele><time>2026-04-30T08:10:29.994Z</time></trkpt><trkpt lat="40.499010891477205" lon="9.708122982750615"><ele>159.39999999999998</ele><time>2026-04-30T08:10:32.994Z</time></trkpt><trkpt lat="40.49892216053007" lon="9.708122925379458"><ele>160.60000000000002</ele><time>2026-04-30T08:10:35.994Z</time></trkpt><trkpt lat="40.49886867252001" lon="9.708191134269516"><ele>161.8</ele><time>2026-04-30T08:10:37.994Z</time></trkpt><trkpt lat="40.49879210646024" lon="9.708310423741182"><ele>163.0</ele><time>2026-04-30T08:10:39.994Z</time></trkpt><trkpt lat="40.4987128850875" lon="9.708436360428237"><ele>163.2</ele><time>2026-04-30T08:10:41.994Z</time></trkpt><trkpt lat="40.498616890861975" lon="9.7085560598902"><ele>163.4</ele><time>2026-04-30T08:10:43.994Z</time></trkpt><trkpt lat="40.49856524671818" lon="9.708643158507337"><ele>163.6</ele><time>2026-04-30T08:10:44.994Z</time></trkpt><trkpt lat="40.498516517639594" lon="9.708708967095182"><ele>163.79999999999998</ele><time>2026-04-30T08:10:45.994Z</time></trkpt><trkpt lat="40.49842753557166" lon="9.708802651260365"><ele>164.0</ele><time>2026-04-30T08:10:47.994Z</time></trkpt><trkpt lat="40.49837642255248" lon="9.70885190051221"><ele>164.0</ele><time>2026-04-30T08:10:48.994Z</time></trkpt><trkpt lat="40.49829732216196" lon="9.70894910908624"><ele>164.0</ele><time>2026-04-30T08:10:50.994Z</time></trkpt><trkpt lat="40.49822183686465" lon="9.708909360230814"><ele>164.0</ele><time>2026-04-30T08:10:55.994Z</time></trkpt><trkpt lat="40.498170436134295" lon="9.708805183755945"><ele>164.0</ele><time>2026-04-30T08:10:57.994Z</time></trkpt><trkpt lat="40.498132236841286" lon="9.708720401278903"><ele>164.0</ele><time>2026-04-30T08:10:59.994Z</time></trkpt><trkpt lat="40.49807642617071" lon="9.708609700094096"><ele>165.79999999999998</ele><time>2026-04-30T08:11:01.994Z</time></trkpt><trkpt lat="40.49802387786424" lon="9.70850886144943"><ele>167.6</ele><time>2026-04-30T08:11:03.994Z</time></trkpt><trkpt lat="40.49799701734039" lon="9.708391572315396"><ele>169.4</ele><time>2026-04-30T08:11:05.994Z</time></trkpt><trkpt lat="40.49796917193652" lon="9.708274017527174"><ele>171.2</ele><time>2026-04-30T08:11:07.994Z</time></trkpt><trkpt lat="40.49800052975063" lon="9.708159068311897"><ele>173.0</ele><time>2026-04-30T08:11:09.994Z</time></trkpt><trkpt lat="40.497979707796155" lon="9.708007973176823"><ele>173.0</ele><time>2026-04-30T08:11:11.994Z</time></trkpt><trkpt lat="40.49796541506845" lon="9.707845335764315"><ele>173.0</ele><time>2026-04-30T08:11:13.993Z</time></trkpt><trkpt lat="40.49794759437697" lon="9.707763843355178"><ele>173.0</ele><time>2026-04-30T08:11:14.993Z</time></trkpt><trkpt lat="40.49795732224137" lon="9.707614296551744"><ele>173.0</ele><time>2026-04-30T08:11:16.993Z</time></trkpt><trkpt lat="40.49797699554459" lon="9.707534940724212"><ele>173.0</ele><time>2026-04-30T08:11:17.993Z</time></trkpt><trkpt lat="40.49801382590931" lon="9.707375226793335"><ele>175.8</ele><time>2026-04-30T08:11:19.993Z</time></trkpt><trkpt lat="40.49806049135107" lon="9.707235793175863"><ele>178.60000000000002</ele><time>2026-04-30T08:11:21.992Z</time></trkpt><trkpt lat="40.498108430226495" lon="9.707095584187764"><ele>181.39999999999998</ele><time>2026-04-30T08:11:23.993Z</time></trkpt><trkpt lat="40.498147089723645" lon="9.70698198916954"><ele>184.2</ele><time>2026-04-30T08:11:25.993Z</time></trkpt><trkpt lat="40.49814084972562" lon="9.706848760924602"><ele>187.0</ele><time>2026-04-30T08:11:27.993Z</time></trkpt><trkpt lat="40.498093911483366" lon="9.70675747381514"><ele>188.5</ele><time>2026-04-30T08:11:58.993Z</time></trkpt><trkpt lat="40.49810777439173" lon="9.706672986886577"><ele>190.0</ele><time>2026-04-30T08:12:00.993Z</time></trkpt><trkpt lat="40.4981160469373" lon="9.706520439535682"><ele>191.5</ele><time>2026-04-30T08:12:02.993Z</time></trkpt><trkpt lat="40.49812129217005" lon="9.706431451073893"><ele>193.0</ele><time>2026-04-30T08:12:03.993Z</time></trkpt><trkpt lat="40.49812831260187" lon="9.706338524963908"><ele>194.49999999999997</ele><time>2026-04-30T08:12:04.993Z</time></trkpt><trkpt lat="40.49813860113562" lon="9.706235988721529"><ele>196.0</ele><time>2026-04-30T08:12:05.993Z</time></trkpt><trkpt lat="40.498146616293326" lon="9.70613951385786"><ele>196.16666666666666</ele><time>2026-04-30T08:12:06.993Z</time></trkpt><trkpt lat="40.49815037780036" lon="9.70603802104312"><ele>196.33333333333331</ele><time>2026-04-30T08:12:07.993Z</time></trkpt><trkpt lat="40.49813964195755" lon="9.705939411472368"><ele>196.5</ele><time>2026-04-30T08:12:08.993Z</time></trkpt><trkpt lat="40.49813373444529" lon="9.705850775882721"><ele>196.66666666666669</ele><time>2026-04-30T08:12:09.993Z</time></trkpt><trkpt lat="40.49811946516213" lon="9.705763988426385"><ele>196.83333333333334</ele><time>2026-04-30T08:12:10.993Z</time></trkpt><trkpt lat="40.49812711399899" lon="9.705606034339299"><ele>197.0</ele><time>2026-04-30T08:12:12.993Z</time></trkpt><trkpt lat="40.49813655960109" lon="9.70546549484501"><ele>197.00000000000003</ele><time>2026-04-30T08:12:14.993Z</time></trkpt><trkpt lat="40.49816073305709" lon="9.70538717296536"><ele>197.0</ele><time>2026-04-30T08:12:15.994Z</time></trkpt><trkpt lat="40.4981843699586" lon="9.705309614051085"><ele>197.0</ele><time>2026-04-30T08:12:16.994Z</time></trkpt><trkpt lat="40.498221824739815" lon="9.705180215979718"><ele>197.0</ele><time>2026-04-30T08:12:18.994Z</time></trkpt><trkpt lat="40.49825497072156" lon="9.705054258052453"><ele>197.00000000000003</ele><time>2026-04-30T08:12:20.994Z</time></trkpt><trkpt lat="40.49830404132731" lon="9.704966697531805"><ele>197.0</ele><time>2026-04-30T08:12:22.994Z</time></trkpt><trkpt lat="40.49836598949296" lon="9.7048888758529"><ele>197.66666666666669</ele><time>2026-04-30T08:12:24.994Z</time></trkpt><trkpt lat="40.4984136129728" lon="9.704826746727402"><ele>198.33333333333334</ele><time>2026-04-30T08:12:26.994Z</time></trkpt><trkpt lat="40.49846715056123" lon="9.704750813077926"><ele>199.0</ele><time>2026-04-30T08:12:28.994Z</time></trkpt><trkpt lat="40.4985367505931" lon="9.704664080784381"><ele>199.66666666666669</ele><time>2026-04-30T08:12:30.994Z</time></trkpt><trkpt lat="40.49862578429983" lon="9.704563374351533"><ele>200.33333333333334</ele><time>2026-04-30T08:12:32.994Z</time></trkpt><trkpt lat="40.498670216294315" lon="9.704473340264139"><ele>201.0</ele><time>2026-04-30T08:12:34.994Z</time></trkpt><trkpt lat="40.49870895195233" lon="9.704394834438187"><ele>197.4</ele><time>2026-04-30T08:12:36.994Z</time></trkpt><trkpt lat="40.498756530655804" lon="9.704306416618863"><ele>193.8</ele><time>2026-04-30T08:12:38.994Z</time></trkpt><trkpt lat="40.49879139548523" lon="9.704211569426725"><ele>190.20000000000002</ele><time>2026-04-30T08:12:40.994Z</time></trkpt><trkpt lat="40.498854638883124" lon="9.704091901796213"><ele>186.60000000000002</ele><time>2026-04-30T08:12:42.994Z</time></trkpt><trkpt lat="40.498910587001696" lon="9.703965541897107"><ele>183.0</ele><time>2026-04-30T08:12:44.994Z</time></trkpt><trkpt lat="40.498970996837734" lon="9.703882382652383"><ele>183.0</ele><time>2026-04-30T08:12:46.994Z</time></trkpt><trkpt lat="40.49905091866326" lon="9.70383996852467"><ele>183.0</ele><time>2026-04-30T08:12:48.994Z</time></trkpt><trkpt lat="40.49911790857989" lon="9.703831529162972"><ele>183.0</ele><time>2026-04-30T08:12:49.994Z</time></trkpt><trkpt lat="40.49918333001619" lon="9.7038232771811"><ele>183.0</ele><time>2026-04-30T08:12:50.994Z</time></trkpt><trkpt lat="40.49924802216604" lon="9.703766690019219"><ele>183.0</ele><time>2026-04-30T08:12:52.994Z</time></trkpt><trkpt lat="40.49927945241047" lon="9.703647436765346"><ele>183.0</ele><time>2026-04-30T08:12:54.994Z</time></trkpt><trkpt lat="40.499313609776166" lon="9.703498031137133"><ele>182.83333333333334</ele><time>2026-04-30T08:12:56.994Z</time></trkpt><trkpt lat="40.49936991228884" lon="9.703375924288675"><ele>182.66666666666666</ele><time>2026-04-30T08:12:58.994Z</time></trkpt><trkpt lat="40.49940129679938" lon="9.703299061644344"><ele>182.5</ele><time>2026-04-30T08:13:00.994Z</time></trkpt><trkpt lat="40.49945081867763" lon="9.703202844747846"><ele>182.33333333333331</ele><time>2026-04-30T08:13:05.994Z</time></trkpt><trkpt lat="40.49946447833798" lon="9.7031197705628"><ele>182.16666666666666</ele><time>2026-04-30T08:13:07.994Z</time></trkpt><trkpt lat="40.49945994203585" lon="9.703015687739342"><ele>182.0</ele><time>2026-04-30T08:13:10.994Z</time></trkpt><trkpt lat="40.49948706231753" lon="9.70290634859703"><ele>182.0</ele><time>2026-04-30T08:13:13.994Z</time></trkpt><trkpt lat="40.49950524129651" lon="9.702804976168952"><ele>182.0</ele><time>2026-04-30T08:13:17.994Z</time></trkpt><trkpt lat="40.49951462761737" lon="9.702680020870734"><ele>182.0</ele><time>2026-04-30T08:13:20.992Z</time></trkpt><trkpt lat="40.49951930586205" lon="9.702566319159327"><ele>182.0</ele><time>2026-04-30T08:13:22.993Z</time></trkpt><trkpt lat="40.49956429765788" lon="9.702454234662858"><ele>182.0</ele><time>2026-04-30T08:13:24.993Z</time></trkpt><trkpt lat="40.49960831101009" lon="9.70233054825687"><ele>185.0</ele><time>2026-04-30T08:13:26.991Z</time></trkpt><trkpt lat="40.49967161518353" lon="9.702208644425513"><ele>188.0</ele><time>2026-04-30T08:13:28.992Z</time></trkpt><trkpt lat="40.499702812580665" lon="9.702069030849795"><ele>191.0</ele><time>2026-04-30T08:13:30.992Z</time></trkpt><trkpt lat="40.499693870340636" lon="9.701958850779913"><ele>194.0</ele><time>2026-04-30T08:13:32.992Z</time></trkpt><trkpt lat="40.49970596229536" lon="9.701871917589386"><ele>197.0</ele><time>2026-04-30T08:13:34.992Z</time></trkpt><trkpt lat="40.49972996241742" lon="9.701774014012196"><ele>197.00000000000003</ele><time>2026-04-30T08:13:36.992Z</time></trkpt><trkpt lat="40.499732572957086" lon="9.701678526175952"><ele>197.0</ele><time>2026-04-30T08:13:38.992Z</time></trkpt><trkpt lat="40.49973923574256" lon="9.701571868496535"><ele>197.0</ele><time>2026-04-30T08:13:40.992Z</time></trkpt><trkpt lat="40.499682287647786" lon="9.701523067596062"><ele>197.0</ele><time>2026-04-30T08:13:43.992Z</time></trkpt><trkpt lat="40.49962354583193" lon="9.701583014488122"><ele>197.00000000000003</ele><time>2026-04-30T08:13:45.992Z</time></trkpt><trkpt lat="40.499576690856756" lon="9.701661004358186"><ele>197.0</ele><time>2026-04-30T08:13:47.992Z</time></trkpt><trkpt lat="40.49950568318793" lon="9.701728886732083"><ele>199.66666666666669</ele><time>2026-04-30T08:13:49.992Z</time></trkpt><trkpt lat="40.4994422024843" lon="9.70178003727138"><ele>202.33333333333334</ele><time>2026-04-30T08:13:51.992Z</time></trkpt><trkpt lat="40.49941723830462" lon="9.701672761893173"><ele>205.0</ele><time>2026-04-30T08:13:54.992Z</time></trkpt><trkpt lat="40.49947644050323" lon="9.701564253071194"><ele>207.66666666666669</ele><time>2026-04-30T08:13:56.992Z</time></trkpt><trkpt lat="40.499499578645114" lon="9.701444695683547"><ele>210.33333333333334</ele><time>2026-04-30T08:13:59.992Z</time></trkpt><trkpt lat="40.49951599888832" lon="9.70132365066764"><ele>213.0</ele><time>2026-04-30T08:14:01.992Z</time></trkpt><trkpt lat="40.49954162215724" lon="9.701174298348299"><ele>213.0</ele><time>2026-04-30T08:14:03.992Z</time></trkpt><trkpt lat="40.499549753459725" lon="9.701087023581682"><ele>213.0</ele><time>2026-04-30T08:14:04.992Z</time></trkpt><trkpt lat="40.49960638085474" lon="9.700969530610758"><ele>213.0</ele><time>2026-04-30T08:14:06.992Z</time></trkpt><trkpt lat="40.499664595103155" lon="9.700847592618313"><ele>213.0</ele><time>2026-04-30T08:14:08.992Z</time></trkpt><trkpt lat="40.49972734246955" lon="9.700737007433176"><ele>213.0</ele><time>2026-04-30T08:14:10.992Z</time></trkpt><trkpt lat="40.499763747094576" lon="9.700669023333822"><ele>211.83333333333334</ele><time>2026-04-30T08:14:11.992Z</time></trkpt><trkpt lat="40.49979967859877" lon="9.700598885203382"><ele>210.66666666666669</ele><time>2026-04-30T08:14:12.992Z</time></trkpt><trkpt lat="40.499845501464314" lon="9.70043190935835"><ele>209.5</ele><time>2026-04-30T08:14:14.992Z</time></trkpt><trkpt lat="40.499887258193176" lon="9.70034528973075"><ele>208.33333333333334</ele><time>2026-04-30T08:14:15.992Z</time></trkpt><trkpt lat="40.49992672017044" lon="9.7002731345608"><ele>207.16666666666669</ele><time>2026-04-30T08:14:16.992Z</time></trkpt><trkpt lat="40.49997573680577" lon="9.700202267359591"><ele>206.0</ele><time>2026-04-30T08:14:17.992Z</time></trkpt><trkpt lat="40.50002691766425" lon="9.70013443086772"><ele>210.00000000000003</ele><time>2026-04-30T08:14:18.992Z</time></trkpt><trkpt lat="40.5000806163237" lon="9.700074385912416"><ele>214.0</ele><time>2026-04-30T08:14:19.992Z</time></trkpt><trkpt lat="40.50013701358008" lon="9.700009586796206"><ele>218.0</ele><time>2026-04-30T08:14:20.992Z</time></trkpt><trkpt lat="40.500190387396714" lon="9.699945789555438"><ele>222.0</ele><time>2026-04-30T08:14:21.993Z</time></trkpt><trkpt lat="40.500235367629514" lon="9.699885518239366"><ele>226.00000000000003</ele><time>2026-04-30T08:14:22.993Z</time></trkpt><trkpt lat="40.5002998264612" lon="9.699751820604936"><ele>230.0</ele><time>2026-04-30T08:14:24.993Z</time></trkpt><trkpt lat="40.50033868708272" lon="9.699634449904066"><ele>230.0</ele><time>2026-04-30T08:14:26.993Z</time></trkpt><trkpt lat="40.50037889885768" lon="9.69949296965545"><ele>230.0</ele><time>2026-04-30T08:14:28.993Z</time></trkpt><trkpt lat="40.50041560372183" lon="9.699364720881075"><ele>230.0</ele><time>2026-04-30T08:14:30.993Z</time></trkpt><trkpt lat="40.50047225587789" lon="9.69922451665151"><ele>230.0</ele><time>2026-04-30T08:14:32.993Z</time></trkpt><trkpt lat="40.50052092069993" lon="9.699087632797033"><ele>230.50000000000003</ele><time>2026-04-30T08:14:34.993Z</time></trkpt><trkpt lat="40.5005516572181" lon="9.698940785654987"><ele>231.0</ele><time>2026-04-30T08:14:36.993Z</time></trkpt><trkpt lat="40.50060073699975" lon="9.698823652499767"><ele>231.5</ele><time>2026-04-30T08:14:38.993Z</time></trkpt><trkpt lat="40.50064050815885" lon="9.69875718329102"><ele>232.0</ele><time>2026-04-30T08:14:39.993Z</time></trkpt><trkpt lat="40.50068855436652" lon="9.6986963306798"><ele>232.50000000000003</ele><time>2026-04-30T08:14:40.993Z</time></trkpt><trkpt lat="40.50073975187259" lon="9.69863017827545"><ele>233.0</ele><time>2026-04-30T08:14:41.993Z</time></trkpt><trkpt lat="40.500781354340816" lon="9.698562674889223"><ele>236.16666666666669</ele><time>2026-04-30T08:14:42.993Z</time></trkpt><trkpt lat="40.500846343715544" lon="9.698460383005747"><ele>239.33333333333334</ele><time>2026-04-30T08:14:44.993Z</time></trkpt><trkpt lat="40.50087503242886" lon="9.698380689114654"><ele>242.5</ele><time>2026-04-30T08:14:46.993Z</time></trkpt><trkpt lat="40.50092683399357" lon="9.698269899687075"><ele>245.66666666666669</ele><time>2026-04-30T08:14:48.993Z</time></trkpt><trkpt lat="40.50098522402955" lon="9.69814607827139"><ele>248.83333333333334</ele><time>2026-04-30T08:14:50.993Z</time></trkpt><trkpt lat="40.50101061197409" lon="9.698069491886892"><ele>252.0</ele><time>2026-04-30T08:14:51.993Z</time></trkpt><trkpt lat="40.50105712216455" lon="9.697921348346332"><ele>252.0</ele><time>2026-04-30T08:14:53.993Z</time></trkpt><trkpt lat="40.501097536321865" lon="9.697799407533779"><ele>252.0</ele><time>2026-04-30T08:14:55.993Z</time></trkpt><trkpt lat="40.50112785502275" lon="9.697719742009054"><ele>252.0</ele><time>2026-04-30T08:14:56.993Z</time></trkpt><trkpt lat="40.501158331738786" lon="9.697642322028003"><ele>252.0</ele><time>2026-04-30T08:14:57.993Z</time></trkpt><trkpt lat="40.50119203371859" lon="9.697567943101305"><ele>252.0</ele><time>2026-04-30T08:14:58.993Z</time></trkpt><trkpt lat="40.50122810537317" lon="9.69744921050795"><ele>252.0</ele><time>2026-04-30T08:15:00.993Z</time></trkpt><trkpt lat="40.50127060505003" lon="9.69735051321689"><ele>253.83333333333334</ele><time>2026-04-30T08:15:02.993Z</time></trkpt><trkpt lat="40.501325600123465" lon="9.697240988014405"><ele>255.66666666666669</ele><time>2026-04-30T08:15:04.993Z</time></trkpt><trkpt lat="40.50138618276052" lon="9.697133005192716"><ele>257.5</ele><time>2026-04-30T08:15:06.993Z</time></trkpt><trkpt lat="40.50142099759359" lon="9.697007043554889"><ele>259.33333333333337</ele><time>2026-04-30T08:15:08.993Z</time></trkpt><trkpt lat="40.50144487342849" lon="9.69692425252411"><ele>261.1666666666667</ele><time>2026-04-30T08:15:10.993Z</time></trkpt><trkpt lat="40.5014745223987" lon="9.696834571782675"><ele>263.0</ele><time>2026-04-30T08:15:12.993Z</time></trkpt><trkpt lat="40.50150356129729" lon="9.69675717016546"><ele>264.83333333333337</ele><time>2026-04-30T08:15:14.993Z</time></trkpt><trkpt lat="40.501561580494965" lon="9.696627807816427"><ele>266.6666666666667</ele><time>2026-04-30T08:15:16.993Z</time></trkpt><trkpt lat="40.50154992646542" lon="9.696546079397034"><ele>268.5</ele><time>2026-04-30T08:15:19.993Z</time></trkpt><trkpt lat="40.50147253963781" lon="9.696612491006938"><ele>270.3333333333333</ele><time>2026-04-30T08:15:22.993Z</time></trkpt><trkpt lat="40.50140884123036" lon="9.696699522708949"><ele>272.16666666666663</ele><time>2026-04-30T08:15:24.991Z</time></trkpt><trkpt lat="40.50133614835609" lon="9.696724689561515"><ele>274.0</ele><time>2026-04-30T08:15:26.991Z</time></trkpt><trkpt lat="40.50123825236303" lon="9.696786108629308"><ele>274.5</ele><time>2026-04-30T08:15:28.991Z</time></trkpt><trkpt lat="40.50115323751618" lon="9.696829658739905"><ele>275.0</ele><time>2026-04-30T08:15:30.992Z</time></trkpt><trkpt lat="40.50103113263978" lon="9.696859533430816"><ele>275.5</ele><time>2026-04-30T08:15:32.991Z</time></trkpt><trkpt lat="40.50096866922126" lon="9.696888150536925"><ele>276.0</ele><time>2026-04-30T08:15:33.991Z</time></trkpt><trkpt lat="40.500908164132845" lon="9.696945780552651"><ele>276.5</ele><time>2026-04-30T08:15:34.991Z</time></trkpt><trkpt lat="40.500852092576" lon="9.69699671172305"><ele>277.0</ele><time>2026-04-30T08:15:35.991Z</time></trkpt><trkpt lat="40.50079380567201" lon="9.697040788656132"><ele>277.0</ele><time>2026-04-30T08:15:36.991Z</time></trkpt><trkpt lat="40.50067938150361" lon="9.69711588107384"><ele>277.0</ele><time>2026-04-30T08:15:38.99Z</time></trkpt><trkpt lat="40.50062604552329" lon="9.697167057646752"><ele>277.0</ele><time>2026-04-30T08:15:39.991Z</time></trkpt><trkpt lat="40.50054942685969" lon="9.69723724507989"><ele>277.0</ele><time>2026-04-30T08:15:41.991Z</time></trkpt><trkpt lat="40.50050895496932" lon="9.697301845006205"><ele>277.0</ele><time>2026-04-30T08:15:43.991Z</time></trkpt><trkpt lat="40.500455410449675" lon="9.697253677514015"><ele>277.0</ele><time>2026-04-30T08:15:48.991Z</time></trkpt><trkpt lat="40.500506338349894" lon="9.697151677979798"><ele>277.0</ele><time>2026-04-30T08:15:50.991Z</time></trkpt><trkpt lat="40.50053902785647" lon="9.697067290131962"><ele>277.0</ele><time>2026-04-30T08:15:54.991Z</time></trkpt><trkpt lat="40.5005631786409" lon="9.69697031763766"><ele>277.0</ele><time>2026-04-30T08:15:56.991Z</time></trkpt><trkpt lat="40.50061642419628" lon="9.696874087470555"><ele>277.0</ele><time>2026-04-30T08:15:58.991Z</time></trkpt><trkpt lat="40.50064526233291" lon="9.696763856887264"><ele>277.0</ele><time>2026-04-30T08:16:00.991Z</time></trkpt><trkpt lat="40.500654122428706" lon="9.696657727512488"><ele>277.0</ele><time>2026-04-30T08:16:02.991Z</time></trkpt><trkpt lat="40.50067802481452" lon="9.69654946479736"><ele>282.0</ele><time>2026-04-30T08:16:04.991Z</time></trkpt><trkpt lat="40.50070896322276" lon="9.696427600088347"><ele>287.0</ele><time>2026-04-30T08:16:06.991Z</time></trkpt><trkpt lat="40.500756032366716" lon="9.696309030185112"><ele>292.0</ele><time>2026-04-30T08:16:08.991Z</time></trkpt><trkpt lat="40.500800640677404" lon="9.69620276975292"><ele>297.0</ele><time>2026-04-30T08:16:10.991Z</time></trkpt><trkpt lat="40.5008424213952" lon="9.696102756886818"><ele>302.0</ele><time>2026-04-30T08:16:12.991Z</time></trkpt><trkpt lat="40.50088902731352" lon="9.69600658347945"><ele>306.8</ele><time>2026-04-30T08:16:14.991Z</time></trkpt><trkpt lat="40.50092716056544" lon="9.69586820963895"><ele>311.6</ele><time>2026-04-30T08:16:16.991Z</time></trkpt><trkpt lat="40.50095626164588" lon="9.695735804200474"><ele>316.40000000000003</ele><time>2026-04-30T08:16:18.991Z</time></trkpt><trkpt lat="40.50098191093261" lon="9.695595180906324"><ele>321.2</ele><time>2026-04-30T08:16:20.991Z</time></trkpt><trkpt lat="40.50098686427574" lon="9.695510651173466"><ele>326.0</ele><time>2026-04-30T08:16:21.991Z</time></trkpt><trkpt lat="40.5010132341068" lon="9.695431730403241"><ele>326.0</ele><time>2026-04-30T08:16:22.991Z</time></trkpt><trkpt lat="40.501074479972985" lon="9.695294037600103"><ele>326.0</ele><time>2026-04-30T08:16:24.991Z</time></trkpt><trkpt lat="40.50115356341683" lon="9.695170149959223"><ele>326.0</ele><time>2026-04-30T08:16:26.991Z</time></trkpt><trkpt lat="40.501192895349284" lon="9.695103901628064"><ele>326.0</ele><time>2026-04-30T08:16:27.991Z</time></trkpt><trkpt lat="40.501238255183104" lon="9.695037248967079"><ele>326.0</ele><time>2026-04-30T08:16:28.991Z</time></trkpt><trkpt lat="40.50128693656115" lon="9.694981295693319"><ele>326.0</ele><time>2026-04-30T08:16:29.991Z</time></trkpt><trkpt lat="40.50134395284172" lon="9.694926157099939"><ele>326.1666666666667</ele><time>2026-04-30T08:16:30.991Z</time></trkpt><trkpt lat="40.50139794032834" lon="9.69488243024643"><ele>326.33333333333337</ele><time>2026-04-30T08:16:31.991Z</time></trkpt><trkpt lat="40.50148481129878" lon="9.69481358516458"><ele>326.5</ele><time>2026-04-30T08:16:33.991Z</time></trkpt><trkpt lat="40.501532349192004" lon="9.69475153909471"><ele>326.6666666666667</ele><time>2026-04-30T08:16:34.991Z</time></trkpt><trkpt lat="40.50158698489547" lon="9.694696677122154"><ele>326.8333333333333</ele><time>2026-04-30T08:16:35.991Z</time></trkpt><trkpt lat="40.501663094121255" lon="9.694584720727242"><ele>327.0</ele><time>2026-04-30T08:16:37.991Z</time></trkpt><trkpt lat="40.501735764338925" lon="9.694522134302767"><ele>327.0</ele><time>2026-04-30T08:16:39.991Z</time></trkpt><trkpt lat="40.50180958744848" lon="9.694442326990009"><ele>327.0</ele><time>2026-04-30T08:16:41.991Z</time></trkpt><trkpt lat="40.5018805055407" lon="9.69434692366962"><ele>327.0</ele><time>2026-04-30T08:16:43.991Z</time></trkpt><trkpt lat="40.50194908637698" lon="9.694236636510709"><ele>327.0</ele><time>2026-04-30T08:16:45.991Z</time></trkpt><trkpt lat="40.50199516056024" lon="9.694164623829066"><ele>327.0</ele><time>2026-04-30T08:16:46.991Z</time></trkpt><trkpt lat="40.50205993693323" lon="9.694006355918848"><ele>328.6666666666667</ele><time>2026-04-30T08:16:48.991Z</time></trkpt><trkpt lat="40.50208753953693" lon="9.693910649596283"><ele>330.3333333333333</ele><time>2026-04-30T08:16:49.991Z</time></trkpt><trkpt lat="40.50211887067004" lon="9.693805789270668"><ele>332.0</ele><time>2026-04-30T08:16:50.991Z</time></trkpt><trkpt lat="40.50214071536094" lon="9.693712696739397"><ele>333.66666666666663</ele><time>2026-04-30T08:16:51.991Z</time></trkpt><trkpt lat="40.50216477159268" lon="9.693633392118539"><ele>335.3333333333333</ele><time>2026-04-30T08:16:52.991Z</time></trkpt><trkpt lat="40.50219892788274" lon="9.69354122959228"><ele>337.0</ele><time>2026-04-30T08:16:53.991Z</time></trkpt><trkpt lat="40.50223403689857" lon="9.693456887721318"><ele>340.14285714285717</ele><time>2026-04-30T08:16:54.991Z</time></trkpt><trkpt lat="40.50227246440958" lon="9.69337574991204"><ele>343.2857142857143</ele><time>2026-04-30T08:16:55.991Z</time></trkpt><trkpt lat="40.502308222588645" lon="9.693286126211804"><ele>346.42857142857144</ele><time>2026-04-30T08:16:56.991Z</time></trkpt><trkpt lat="40.50234173364846" lon="9.693202270017146"><ele>349.57142857142856</ele><time>2026-04-30T08:16:57.991Z</time></trkpt><trkpt lat="40.502379312262484" lon="9.693126722990222"><ele>352.7142857142857</ele><time>2026-04-30T08:16:58.991Z</time></trkpt><trkpt lat="40.50243843571549" lon="9.693050656883448"><ele>355.8571428571429</ele><time>2026-04-30T08:16:59.991Z</time></trkpt><trkpt lat="40.50248890946073" lon="9.692976987417476"><ele>359.0</ele><time>2026-04-30T08:17:00.991Z</time></trkpt><trkpt lat="40.50253016085827" lon="9.692909833545988"><ele>359.0</ele><time>2026-04-30T08:17:01.991Z</time></trkpt><trkpt lat="40.50256596620695" lon="9.692827115792433"><ele>359.0</ele><time>2026-04-30T08:17:02.991Z</time></trkpt><trkpt lat="40.50259970144592" lon="9.692670154550367"><ele>359.0</ele><time>2026-04-30T08:17:04.991Z</time></trkpt><trkpt lat="40.5026317281612" lon="9.692588668072945"><ele>359.0</ele><time>2026-04-30T08:17:05.991Z</time></trkpt><trkpt lat="40.50267946341054" lon="9.692517684882134"><ele>359.0</ele><time>2026-04-30T08:17:06.991Z</time></trkpt><trkpt lat="40.50273017063506" lon="9.692464652431779"><ele>359.0</ele><time>2026-04-30T08:17:07.991Z</time></trkpt><trkpt lat="40.50283299935642" lon="9.692375843879212"><ele>360.6666666666667</ele><time>2026-04-30T08:17:09.991Z</time></trkpt><trkpt lat="40.50292087007837" lon="9.69227879287255"><ele>362.33333333333337</ele><time>2026-04-30T08:17:11.991Z</time></trkpt><trkpt lat="40.50296723888573" lon="9.69220890008995"><ele>364.0</ele><time>2026-04-30T08:17:12.991Z</time></trkpt><trkpt lat="40.50302492099311" lon="9.69214526784728"><ele>365.6666666666667</ele><time>2026-04-30T08:17:13.991Z</time></trkpt><trkpt lat="40.50307867702195" lon="9.692075018240907"><ele>367.3333333333333</ele><time>2026-04-30T08:17:14.991Z</time></trkpt><trkpt lat="40.50312398465341" lon="9.691995981411297"><ele>369.0</ele><time>2026-04-30T08:17:15.992Z</time></trkpt><trkpt lat="40.50316636258353" lon="9.691854769605497"><ele>372.5</ele><time>2026-04-30T08:17:17.992Z</time></trkpt><trkpt lat="40.503190689888505" lon="9.691719068951182"><ele>376.0</ele><time>2026-04-30T08:17:19.992Z</time></trkpt><trkpt lat="40.50320746543971" lon="9.691627692105019"><ele>379.5</ele><time>2026-04-30T08:17:21.992Z</time></trkpt><trkpt lat="40.50325032067085" lon="9.691548218463321"><ele>383.0</ele><time>2026-04-30T08:18:24.001Z</time></trkpt><trkpt lat="40.503331437750404" lon="9.691487672223861"><ele>386.5</ele><time>2026-04-30T08:18:27.001Z</time></trkpt><trkpt lat="40.50341825644234" lon="9.69145323261292"><ele>390.0</ele><time>2026-04-30T08:18:29.001Z</time></trkpt><trkpt lat="40.50352387420456" lon="9.691396006579096"><ele>390.0</ele><time>2026-04-30T08:18:31.001Z</time></trkpt><trkpt lat="40.503622650060606" lon="9.691387683723727"><ele>390.0</ele><time>2026-04-30T08:18:33.001Z</time></trkpt><trkpt lat="40.50373003671154" lon="9.691417760982347"><ele>390.0</ele><time>2026-04-30T08:18:35.001Z</time></trkpt><trkpt lat="40.50384239303748" lon="9.691494811379947"><ele>390.0</ele><time>2026-04-30T08:18:37.001Z</time></trkpt><trkpt lat="40.50389949623793" lon="9.691550567170303"><ele>390.0</ele><time>2026-04-30T08:18:38.001Z</time></trkpt><trkpt lat="40.50397758497133" lon="9.691657691490704"><ele>393.8333333333333</ele><time>2026-04-30T08:18:40.001Z</time></trkpt><trkpt lat="40.50406316157519" lon="9.691785475889791"><ele>397.66666666666663</ele><time>2026-04-30T08:18:42.001Z</time></trkpt><trkpt lat="40.50411486718869" lon="9.691889476685454"><ele>401.5</ele><time>2026-04-30T08:18:44.001Z</time></trkpt><trkpt lat="40.504156224436336" lon="9.69180569855734"><ele>405.3333333333333</ele><time>2026-04-30T08:18:50.001Z</time></trkpt><trkpt lat="40.504126719706875" lon="9.69172902461007"><ele>409.16666666666663</ele><time>2026-04-30T08:18:52.001Z</time></trkpt><trkpt lat="40.50411775143495" lon="9.691640099144168"><ele>413.0</ele><time>2026-04-30T08:18:54.002Z</time></trkpt><trkpt lat="40.50409812512883" lon="9.691540428582988"><ele>413.0</ele><time>2026-04-30T08:18:56.002Z</time></trkpt><trkpt lat="40.50408081100918" lon="9.69142709574467"><ele>413.0</ele><time>2026-04-30T08:18:58.002Z</time></trkpt><trkpt lat="40.504086381734155" lon="9.691293060770208"><ele>413.0</ele><time>2026-04-30T08:19:00.002Z</time></trkpt><trkpt lat="40.50406028819497" lon="9.691156515023092"><ele>413.0</ele><time>2026-04-30T08:19:02.002Z</time></trkpt><trkpt lat="40.50400613613071" lon="9.69101483265027"><ele>413.0</ele><time>2026-04-30T08:19:04.002Z</time></trkpt><trkpt lat="40.503921877517605" lon="9.69090033498253"><ele>415.16666666666663</ele><time>2026-04-30T08:19:06.002Z</time></trkpt><trkpt lat="40.503866137488046" lon="9.690855351056506"><ele>417.3333333333333</ele><time>2026-04-30T08:19:07.002Z</time></trkpt><trkpt lat="40.50378753299843" lon="9.6907958012041"><ele>419.5</ele><time>2026-04-30T08:19:09.002Z</time></trkpt><trkpt lat="40.503821323307115" lon="9.690702083100987"><ele>421.66666666666663</ele><time>2026-04-30T08:19:13.002Z</time></trkpt><trkpt lat="40.503920574588705" lon="9.69070963651294"><ele>423.8333333333333</ele><time>2026-04-30T08:19:15.002Z</time></trkpt><trkpt lat="40.504017172902216" lon="9.69070502115582"><ele>426.0</ele><time>2026-04-30T08:19:17.002Z</time></trkpt><trkpt lat="40.50411618117978" lon="9.690657129926944"><ele>426.0</ele><time>2026-04-30T08:19:19.002Z</time></trkpt><trkpt lat="40.50422647338735" lon="9.690608165579047"><ele>426.0</ele><time>2026-04-30T08:19:21.002Z</time></trkpt><trkpt lat="40.50430413700213" lon="9.690657680082772"><ele>426.0</ele><time>2026-04-30T08:19:24.002Z</time></trkpt><trkpt lat="40.50434542837676" lon="9.690772352380886"><ele>426.0</ele><time>2026-04-30T08:19:26.002Z</time></trkpt><trkpt lat="40.504398787438" lon="9.690827103508209"><ele>426.0</ele><time>2026-04-30T08:19:28.002Z</time></trkpt><trkpt lat="40.50446770753968" lon="9.690825378610185"><ele>426.0</ele><time>2026-04-30T08:19:30.002Z</time></trkpt><trkpt lat="40.504551058094265" lon="9.690759679523985"><ele>431.20000000000005</ele><time>2026-04-30T08:19:32.002Z</time></trkpt><trkpt lat="40.504645976257464" lon="9.690687116498932"><ele>436.40000000000003</ele><time>2026-04-30T08:19:34.002Z</time></trkpt><trkpt lat="40.50473741283897" lon="9.69062041714295"><ele>441.6</ele><time>2026-04-30T08:19:36.002Z</time></trkpt><trkpt lat="40.50483658097959" lon="9.690567225638535"><ele>446.8</ele><time>2026-04-30T08:19:38Z</time></trkpt><trkpt lat="40.50494983906558" lon="9.690529768593727"><ele>452.0</ele><time>2026-04-30T08:19:40Z</time></trkpt><trkpt lat="40.50506237614868" lon="9.690498603792083"><ele>452.0</ele><time>2026-04-30T08:19:42Z</time></trkpt><trkpt lat="40.50517134179635" lon="9.690479117821758"><ele>452.00000000000006</ele><time>2026-04-30T08:19:44Z</time></trkpt><trkpt lat="40.50528073321782" lon="9.690446488711917"><ele>452.00000000000006</ele><time>2026-04-30T08:19:46Z</time></trkpt><trkpt lat="40.505345875090356" lon="9.690432463207202"><ele>452.0</ele><time>2026-04-30T08:19:47Z</time></trkpt><trkpt lat="40.50546667219912" lon="9.690408833821525"><ele>452.0</ele><time>2026-04-30T08:19:49Z</time></trkpt><trkpt lat="40.505536787304585" lon="9.690407139164044"><ele>455.3333333333333</ele><time>2026-04-30T08:19:50Z</time></trkpt><trkpt lat="40.505597190697536" lon="9.690378457248894"><ele>458.66666666666663</ele><time>2026-04-30T08:19:51Z</time></trkpt><trkpt lat="40.50567836075448" lon="9.69038292005405"><ele>462.0</ele><time>2026-04-30T08:19:53Z</time></trkpt><trkpt lat="40.50577690096285" lon="9.690418384203777"><ele>465.33333333333337</ele><time>2026-04-30T08:19:55Z</time></trkpt><trkpt lat="40.50583992394566" lon="9.690453193008823"><ele>468.6666666666667</ele><time>2026-04-30T08:19:56Z</time></trkpt><trkpt lat="40.50590755465578" lon="9.690486169620598"><ele>472.0</ele><time>2026-04-30T08:19:57Z</time></trkpt><trkpt lat="40.505971801603835" lon="9.69050376450729"><ele>472.0</ele><time>2026-04-30T08:19:58Z</time></trkpt><trkpt lat="40.50605092044763" lon="9.690522920841323"><ele>472.0</ele><time>2026-04-30T08:19:59Z</time></trkpt><trkpt lat="40.50611551846729" lon="9.690532018238738"><ele>472.0</ele><time>2026-04-30T08:20:00Z</time></trkpt><trkpt lat="40.50619014914647" lon="9.690543908878084"><ele>472.0</ele><time>2026-04-30T08:20:01Z</time></trkpt><trkpt lat="40.5062612576619" lon="9.6905629965391"><ele>472.0</ele><time>2026-04-30T08:20:02Z</time></trkpt><trkpt lat="40.506319865131594" lon="9.690595528414494"><ele>472.0</ele><time>2026-04-30T08:20:03Z</time></trkpt><trkpt lat="40.50638150867122" lon="9.690637525523345"><ele>472.0</ele><time>2026-04-30T08:20:04Z</time></trkpt><trkpt lat="40.50643574123162" lon="9.690683606929175"><ele>473.50000000000006</ele><time>2026-04-30T08:20:05Z</time></trkpt><trkpt lat="40.506490112656955" lon="9.690806665468628"><ele>475.0</ele><time>2026-04-30T08:20:07Z</time></trkpt><trkpt lat="40.50651122954957" lon="9.690888112135033"><ele>476.5</ele><time>2026-04-30T08:20:08Z</time></trkpt><trkpt lat="40.50653866844256" lon="9.690973883093239"><ele>478.0</ele><time>2026-04-30T08:20:09Z</time></trkpt><trkpt lat="40.50657650101099" lon="9.691061652889127"><ele>479.50000000000006</ele><time>2026-04-30T08:20:10Z</time></trkpt><trkpt lat="40.50661399264867" lon="9.691135646289862"><ele>481.0</ele><time>2026-04-30T08:20:11Z</time></trkpt><trkpt lat="40.506641893721145" lon="9.691288702786498"><ele>481.00000000000006</ele><time>2026-04-30T08:20:13Z</time></trkpt><trkpt lat="40.50664028092024" lon="9.691429050087356"><ele>481.0</ele><time>2026-04-30T08:20:15Z</time></trkpt><trkpt lat="40.50666310141317" lon="9.691515158464702"><ele>481.0</ele><time>2026-04-30T08:20:16Z</time></trkpt><trkpt lat="40.50669355378314" lon="9.691599172603764"><ele>481.0</ele><time>2026-04-30T08:20:17.001Z</time></trkpt><trkpt lat="40.506726851631356" lon="9.691698255279343"><ele>481.00000000000006</ele><time>2026-04-30T08:20:18.001Z</time></trkpt><trkpt lat="40.50676999059751" lon="9.691803986405068"><ele>481.0</ele><time>2026-04-30T08:20:19.001Z</time></trkpt><trkpt lat="40.50680973799339" lon="9.691910453122905"><ele>480.33333333333337</ele><time>2026-04-30T08:20:20.001Z</time></trkpt><trkpt lat="40.506852010387114" lon="9.692003306330118"><ele>479.6666666666667</ele><time>2026-04-30T08:20:21.001Z</time></trkpt><trkpt lat="40.50688424583507" lon="9.692090208156486"><ele>479.0</ele><time>2026-04-30T08:20:22.001Z</time></trkpt><trkpt lat="40.50689827405819" lon="9.692226382479395"><ele>478.33333333333337</ele><time>2026-04-30T08:20:24.001Z</time></trkpt><trkpt lat="40.50687172028774" lon="9.692327033697413"><ele>477.6666666666667</ele><time>2026-04-30T08:20:26.001Z</time></trkpt><trkpt lat="40.506923389301754" lon="9.692385357862793"><ele>477.0</ele><time>2026-04-30T08:20:28.001Z</time></trkpt><trkpt lat="40.50697322279966" lon="9.692436274322711"><ele>477.0</ele><time>2026-04-30T08:20:29.001Z</time></trkpt><trkpt lat="40.50703168270453" lon="9.692488961974611"><ele>476.99999999999994</ele><time>2026-04-30T08:20:30.001Z</time></trkpt><trkpt lat="40.50709135397219" lon="9.692540269735217"><ele>477.0</ele><time>2026-04-30T08:20:31.001Z</time></trkpt><trkpt lat="40.50714871661706" lon="9.692591718051231"><ele>477.0</ele><time>2026-04-30T08:20:32.001Z</time></trkpt><trkpt lat="40.5072022653007" lon="9.692643779254746"><ele>476.99999999999994</ele><time>2026-04-30T08:20:33.001Z</time></trkpt><trkpt lat="40.50725400063714" lon="9.69270022774355"><ele>477.0</ele><time>2026-04-30T08:20:34.001Z</time></trkpt><trkpt lat="40.507301878817856" lon="9.692773055069393"><ele>477.0</ele><time>2026-04-30T08:21:48Z</time></trkpt><trkpt lat="40.50735479995001" lon="9.69284729490639"><ele>478.71428571428567</ele><time>2026-04-30T08:21:50Z</time></trkpt><trkpt lat="40.50739930328706" lon="9.692906143686795"><ele>480.4285714285714</ele><time>2026-04-30T08:21:51Z</time></trkpt><trkpt lat="40.50744444603978" lon="9.692977120009353"><ele>482.1428571428571</ele><time>2026-04-30T08:21:52Z</time></trkpt><trkpt lat="40.507490526405874" lon="9.693061108347948"><ele>483.8571428571429</ele><time>2026-04-30T08:21:53Z</time></trkpt><trkpt lat="40.507525356470204" lon="9.693148212250884"><ele>485.5714285714286</ele><time>2026-04-30T08:21:54Z</time></trkpt><trkpt lat="40.50757102252774" lon="9.693226540682614"><ele>487.28571428571433</ele><time>2026-04-30T08:21:55Z</time></trkpt><trkpt lat="40.507616148884296" lon="9.693297260313278"><ele>489.0</ele><time>2026-04-30T08:21:56Z</time></trkpt><trkpt lat="40.50766660946459" lon="9.69336314086258"><ele>489.0</ele><time>2026-04-30T08:21:57Z</time></trkpt><trkpt lat="40.50771681888321" lon="9.69341843224489"><ele>489.0</ele><time>2026-04-30T08:21:58Z</time></trkpt><trkpt lat="40.507772940907394" lon="9.693532461901038"><ele>489.0</ele><time>2026-04-30T08:22:00Z</time></trkpt><trkpt lat="40.50779249946095" lon="9.693611338020668"><ele>489.0</ele><time>2026-04-30T08:22:01Z</time></trkpt><trkpt lat="40.50784851081418" lon="9.693760225087907"><ele>489.0</ele><time>2026-04-30T08:22:03Z</time></trkpt><trkpt lat="40.50788110184951" lon="9.693847147853763"><ele>489.0</ele><time>2026-04-30T08:22:04Z</time></trkpt><trkpt lat="40.507908784677106" lon="9.693944786791516"><ele>488.5</ele><time>2026-04-30T08:22:05Z</time></trkpt><trkpt lat="40.5079348599827" lon="9.694045653141217"><ele>488.0</ele><time>2026-04-30T08:22:06Z</time></trkpt><trkpt lat="40.507967720474305" lon="9.6941491490923"><ele>487.5</ele><time>2026-04-30T08:22:07Z</time></trkpt><trkpt lat="40.50801076093236" lon="9.69425639972283"><ele>487.0</ele><time>2026-04-30T08:22:08Z</time></trkpt><trkpt lat="40.508054956395604" lon="9.69434890120926"><ele>486.5</ele><time>2026-04-30T08:22:09Z</time></trkpt><trkpt lat="40.50810114659379" lon="9.694438042609743"><ele>486.0</ele><time>2026-04-30T08:22:10Z</time></trkpt><trkpt lat="40.50814952910644" lon="9.694502001787544"><ele>486.0</ele><time>2026-04-30T08:22:11Z</time></trkpt><trkpt lat="40.50820202462994" lon="9.694564990694138"><ele>486.0</ele><time>2026-04-30T08:22:12Z</time></trkpt><trkpt lat="40.508254548909164" lon="9.694620117455557"><ele>486.0</ele><time>2026-04-30T08:22:13Z</time></trkpt><trkpt lat="40.50834734667239" lon="9.69466151316429"><ele>486.0</ele><time>2026-04-30T08:22:15Z</time></trkpt><trkpt lat="40.5084476663414" lon="9.694646636813737"><ele>486.0</ele><time>2026-04-30T08:22:17Z</time></trkpt><trkpt lat="40.508512739598196" lon="9.694636443333795"><ele>486.0</ele><time>2026-04-30T08:22:18Z</time></trkpt><trkpt lat="40.508649684112775" lon="9.694623025559585"><ele>486.0</ele><time>2026-04-30T08:22:20.001Z</time></trkpt><trkpt lat="40.508729389957594" lon="9.694624959553307"><ele>486.0</ele><time>2026-04-30T08:22:21.001Z</time></trkpt><trkpt lat="40.5088051314618" lon="9.694616025227516"><ele>486.0</ele><time>2026-04-30T08:22:22.001Z</time></trkpt><trkpt lat="40.50886845637297" lon="9.694659019546437"><ele>486.0</ele><time>2026-04-30T08:22:23.001Z</time></trkpt><trkpt lat="40.50893644879237" lon="9.694705859499892"><ele>486.0</ele><time>2026-04-30T08:22:24.001Z</time></trkpt><trkpt lat="40.509009264256306" lon="9.694775110514744"><ele>486.0</ele><time>2026-04-30T08:22:25.001Z</time></trkpt><trkpt lat="40.50909678492121" lon="9.69483365460873"><ele>488.1666666666667</ele><time>2026-04-30T08:22:26.001Z</time></trkpt><trkpt lat="40.50917857862836" lon="9.694888901308392"><ele>490.33333333333337</ele><time>2026-04-30T08:22:27.001Z</time></trkpt><trkpt lat="40.50925474474016" lon="9.694917611163724"><ele>492.5</ele><time>2026-04-30T08:22:28.001Z</time></trkpt><trkpt lat="40.509323036863854" lon="9.694936847138454"><ele>494.6666666666667</ele><time>2026-04-30T08:22:29.001Z</time></trkpt><trkpt lat="40.50940217147156" lon="9.694968865526286"><ele>496.83333333333337</ele><time>2026-04-30T08:22:30.001Z</time></trkpt><trkpt lat="40.50948872594574" lon="9.695006498729814"><ele>499.0</ele><time>2026-04-30T08:22:31.001Z</time></trkpt><trkpt lat="40.509563644594174" lon="9.695029852143346"><ele>501.4</ele><time>2026-04-30T08:22:32.001Z</time></trkpt><trkpt lat="40.50963065064161" lon="9.695039136684146"><ele>503.79999999999995</ele><time>2026-04-30T08:22:33.001Z</time></trkpt><trkpt lat="40.509715495142444" lon="9.695036653542687"><ele>506.20000000000005</ele><time>2026-04-30T08:22:34.001Z</time></trkpt><trkpt lat="40.50982046364213" lon="9.69504481302512"><ele>508.6</ele><time>2026-04-30T08:22:35.001Z</time></trkpt><trkpt lat="40.509916270602226" lon="9.695056967125"><ele>511.0</ele><time>2026-04-30T08:22:36.001Z</time></trkpt><trkpt lat="40.5100124026263" lon="9.69506770541883"><ele>511.0</ele><time>2026-04-30T08:22:37.001Z</time></trkpt><trkpt lat="40.51009559127864" lon="9.695069039882902"><ele>511.0</ele><time>2026-04-30T08:22:38.001Z</time></trkpt><trkpt lat="40.510190593691725" lon="9.695063884388116"><ele>511.0</ele><time>2026-04-30T08:22:39.001Z</time></trkpt><trkpt lat="40.510293238288405" lon="9.695038721601637"><ele>511.0</ele><time>2026-04-30T08:22:40.001Z</time></trkpt><trkpt lat="40.510387147611546" lon="9.69502376179892"><ele>511.0</ele><time>2026-04-30T08:22:41.001Z</time></trkpt><trkpt lat="40.51046232946327" lon="9.694992064734992"><ele>512.3333333333334</ele><time>2026-04-30T08:22:42.001Z</time></trkpt><trkpt lat="40.5105232031583" lon="9.694968622364502"><ele>513.6666666666667</ele><time>2026-04-30T08:22:43.001Z</time></trkpt><trkpt lat="40.51057567184296" lon="9.694895900954503"><ele>515.0</ele><time>2026-04-30T08:22:45.001Z</time></trkpt><trkpt lat="40.51060637844497" lon="9.694796190381211"><ele>516.3333333333334</ele><time>2026-04-30T08:22:47.001Z</time></trkpt><trkpt lat="40.510656859062216" lon="9.694669920571146"><ele>517.6666666666666</ele><time>2026-04-30T08:22:49.001Z</time></trkpt><trkpt lat="40.51073047097827" lon="9.694628925446414"><ele>519.0</ele><time>2026-04-30T08:22:51.001Z</time></trkpt><trkpt lat="40.51081077821325" lon="9.694685980609393"><ele>519.0</ele><time>2026-04-30T08:22:53.001Z</time></trkpt><trkpt lat="40.51086756329728" lon="9.694811314206554"><ele>519.0</ele><time>2026-04-30T08:22:55.001Z</time></trkpt><trkpt lat="40.51091062681321" lon="9.694879516431833"><ele>519.0</ele><time>2026-04-30T08:22:56.001Z</time></trkpt><trkpt lat="40.51096163173694" lon="9.694944913067372"><ele>519.0</ele><time>2026-04-30T08:22:57.001Z</time></trkpt><trkpt lat="40.511017604200916" lon="9.695017951962594"><ele>519.0</ele><time>2026-04-30T08:22:58.001Z</time></trkpt><trkpt lat="40.511054783410366" lon="9.695091463355284"><ele>519.0</ele><time>2026-04-30T08:22:59.001Z</time></trkpt><trkpt lat="40.511078027513754" lon="9.695177988405865"><ele>517.6</ele><time>2026-04-30T08:23:00.001Z</time></trkpt><trkpt lat="40.5111420255813" lon="9.695307474764219"><ele>516.2</ele><time>2026-04-30T08:23:02.001Z</time></trkpt><trkpt lat="40.511236605387495" lon="9.69542513130639"><ele>514.8000000000001</ele><time>2026-04-30T08:23:04.001Z</time></trkpt><trkpt lat="40.511277795461275" lon="9.695511093077359"><ele>513.4</ele><time>2026-04-30T08:23:05.001Z</time></trkpt><trkpt lat="40.51132080828865" lon="9.695611159477181"><ele>512.0</ele><time>2026-04-30T08:23:06.001Z</time></trkpt><trkpt lat="40.511363727983245" lon="9.695719593505203"><ele>514.8333333333333</ele><time>2026-04-30T08:23:07.001Z</time></trkpt><trkpt lat="40.51140827196426" lon="9.695816792998366"><ele>517.6666666666666</ele><time>2026-04-30T08:23:08.001Z</time></trkpt><trkpt lat="40.511451757804565" lon="9.69588526228683"><ele>520.5</ele><time>2026-04-30T08:23:09.001Z</time></trkpt><trkpt lat="40.51151519606876" lon="9.696018728857583"><ele>523.3333333333334</ele><time>2026-04-30T08:23:11.001Z</time></trkpt><trkpt lat="40.511523697269055" lon="9.696102749628826"><ele>526.1666666666667</ele><time>2026-04-30T08:23:12.001Z</time></trkpt><trkpt lat="40.51152807791223" lon="9.696211073488266"><ele>529.0</ele><time>2026-04-30T08:23:13.001Z</time></trkpt><trkpt lat="40.51154341326346" lon="9.696331812123605"><ele>529.8333333333334</ele><time>2026-04-30T08:23:14.001Z</time></trkpt><trkpt lat="40.511576473611484" lon="9.696433353600455"><ele>530.6666666666667</ele><time>2026-04-30T08:23:15.002Z</time></trkpt><trkpt lat="40.51161664682956" lon="9.69654559882382"><ele>531.5</ele><time>2026-04-30T08:23:16.002Z</time></trkpt><trkpt lat="40.51165286023483" lon="9.696636914305234"><ele>532.3333333333334</ele><time>2026-04-30T08:23:17.002Z</time></trkpt><trkpt lat="40.511678858373244" lon="9.696736363898014"><ele>533.1666666666666</ele><time>2026-04-30T08:23:18.002Z</time></trkpt><trkpt lat="40.51170701566702" lon="9.696849885808016"><ele>534.0</ele><time>2026-04-30T08:23:19.002Z</time></trkpt><trkpt lat="40.51173778526555" lon="9.69696294270136"><ele>534.0</ele><time>2026-04-30T08:23:20.002Z</time></trkpt><trkpt lat="40.51177243035629" lon="9.697066702506728"><ele>534.0</ele><time>2026-04-30T08:23:21.002Z</time></trkpt><trkpt lat="40.51180906716966" lon="9.697162419452303"><ele>534.0</ele><time>2026-04-30T08:23:22.002Z</time></trkpt><trkpt lat="40.511844657776656" lon="9.697251043602906"><ele>534.0</ele><time>2026-04-30T08:23:23.002Z</time></trkpt><trkpt lat="40.5118886599629" lon="9.697341649688415"><ele>534.0</ele><time>2026-04-30T08:23:24.002Z</time></trkpt><trkpt lat="40.511930229342056" lon="9.697419200364392"><ele>534.0</ele><time>2026-04-30T08:23:25.002Z</time></trkpt><trkpt lat="40.51197327304937" lon="9.697517697903288"><ele>534.0</ele><time>2026-04-30T08:23:26.002Z</time></trkpt><trkpt lat="40.51199826855159" lon="9.697595102498152"><ele>534.0</ele><time>2026-04-30T08:23:27.002Z</time></trkpt><trkpt lat="40.51202316731256" lon="9.69768929490118"><ele>534.0</ele><time>2026-04-30T08:23:28.002Z</time></trkpt><trkpt lat="40.51204944725112" lon="9.697775257254609"><ele>534.0</ele><time>2026-04-30T08:23:29.002Z</time></trkpt><trkpt lat="40.51209711899191" lon="9.697937028736392"><ele>534.0</ele><time>2026-04-30T08:23:31.002Z</time></trkpt><trkpt lat="40.5121263531539" lon="9.698030313023489"><ele>534.0</ele><time>2026-04-30T08:23:32.002Z</time></trkpt><trkpt lat="40.51215377207926" lon="9.698130870613385"><ele>537.5</ele><time>2026-04-30T08:23:33.002Z</time></trkpt><trkpt lat="40.5121848630904" lon="9.698223785149743"><ele>541.0</ele><time>2026-04-30T08:23:34.002Z</time></trkpt><trkpt lat="40.51221802860845" lon="9.698301340442992"><ele>544.5</ele><time>2026-04-30T08:23:35.002Z</time></trkpt><trkpt lat="40.51226056491638" lon="9.698393465875705"><ele>548.0</ele><time>2026-04-30T08:23:36.002Z</time></trkpt><trkpt lat="40.51230277845737" lon="9.69846599849965"><ele>551.5</ele><time>2026-04-30T08:23:37.002Z</time></trkpt><trkpt lat="40.512354283824095" lon="9.69854110843495"><ele>555.0</ele><time>2026-04-30T08:23:38.002Z</time></trkpt><trkpt lat="40.512403459764535" lon="9.698619811592403"><ele>555.0</ele><time>2026-04-30T08:23:39.002Z</time></trkpt><trkpt lat="40.512483306492726" lon="9.698748379386869"><ele>555.0</ele><time>2026-04-30T08:23:41.002Z</time></trkpt><trkpt lat="40.512532984671296" lon="9.69881002702985"><ele>555.0</ele><time>2026-04-30T08:23:42.002Z</time></trkpt><trkpt lat="40.51258334020368" lon="9.69886558130634"><ele>555.0</ele><time>2026-04-30T08:23:43.002Z</time></trkpt><trkpt lat="40.51264004485849" lon="9.698927348117655"><ele>555.0</ele><time>2026-04-30T08:23:44.002Z</time></trkpt><trkpt lat="40.512686425272804" lon="9.699004403010987"><ele>555.0</ele><time>2026-04-30T08:23:45.002Z</time></trkpt><trkpt lat="40.51273990097967" lon="9.69909047273518"><ele>555.0</ele><time>2026-04-30T08:23:46.002Z</time></trkpt><trkpt lat="40.51279330041029" lon="9.699184880202239"><ele>555.0</ele><time>2026-04-30T08:23:47.002Z</time></trkpt><trkpt lat="40.5128449198454" lon="9.699293904906396"><ele>555.0</ele><time>2026-04-30T08:23:48.002Z</time></trkpt><trkpt lat="40.512888083735255" lon="9.699398989549646"><ele>555.0</ele><time>2026-04-30T08:23:49.001Z</time></trkpt><trkpt lat="40.51292585576872" lon="9.699511151859632"><ele>555.0</ele><time>2026-04-30T08:23:50.001Z</time></trkpt><trkpt lat="40.51294896917101" lon="9.699601275377624"><ele>555.0</ele><time>2026-04-30T08:23:51.001Z</time></trkpt><trkpt lat="40.51296782039345" lon="9.699704993975601"><ele>555.3333333333334</ele><time>2026-04-30T08:23:52.001Z</time></trkpt><trkpt lat="40.5129742023951" lon="9.699824410089818"><ele>555.6666666666666</ele><time>2026-04-30T08:23:53Z</time></trkpt><trkpt lat="40.512978191352964" lon="9.699938413759686"><ele>556.0</ele><time>2026-04-30T08:23:54Z</time></trkpt><trkpt lat="40.512990127982455" lon="9.700036256654462"><ele>556.3333333333333</ele><time>2026-04-30T08:23:55.001Z</time></trkpt><trkpt lat="40.51302464132104" lon="9.700144948853334"><ele>556.6666666666666</ele><time>2026-04-30T08:23:56.001Z</time></trkpt><trkpt lat="40.51306846591317" lon="9.700259140083674"><ele>557.0</ele><time>2026-04-30T08:23:57.001Z</time></trkpt><trkpt lat="40.51311163666821" lon="9.700357576307821"><ele>557.0</ele><time>2026-04-30T08:23:58.001Z</time></trkpt><trkpt lat="40.513142145969766" lon="9.700430706816418"><ele>557.0</ele><time>2026-04-30T08:23:59Z</time></trkpt><trkpt lat="40.513231430247245" lon="9.70054331077128"><ele>557.0</ele><time>2026-04-30T08:24:01Z</time></trkpt><trkpt lat="40.51329334657603" lon="9.700615430962998"><ele>557.0</ele><time>2026-04-30T08:24:02Z</time></trkpt><trkpt lat="40.51335488201948" lon="9.700698410042488"><ele>557.0</ele><time>2026-04-30T08:24:03Z</time></trkpt><trkpt lat="40.513404547275854" lon="9.70075225079168"><ele>557.0</ele><time>2026-04-30T08:24:04Z</time></trkpt><trkpt lat="40.513521543168906" lon="9.700801929105237"><ele>557.0</ele><time>2026-04-30T08:24:06Z</time></trkpt><trkpt lat="40.513587354568514" lon="9.700830868073256"><ele>557.0</ele><time>2026-04-30T08:24:07Z</time></trkpt><trkpt lat="40.51365247995446" lon="9.700853280502535"><ele>557.0</ele><time>2026-04-30T08:24:08Z</time></trkpt><trkpt lat="40.513721407944935" lon="9.700868761013501"><ele>557.0</ele><time>2026-04-30T08:24:09Z</time></trkpt><trkpt lat="40.513840821145486" lon="9.700856780990641"><ele>557.0</ele><time>2026-04-30T08:24:11Z</time></trkpt><trkpt lat="40.51395114140454" lon="9.70085387177615"><ele>557.0</ele><time>2026-04-30T08:24:13Z</time></trkpt><trkpt lat="40.51402628686577" lon="9.700898851758287"><ele>555.0</ele><time>2026-04-30T08:24:15Z</time></trkpt><trkpt lat="40.51409587158388" lon="9.700982544840183"><ele>553.0</ele><time>2026-04-30T08:24:17Z</time></trkpt><trkpt lat="40.51413983343235" lon="9.701048956911851"><ele>551.0</ele><time>2026-04-30T08:24:18Z</time></trkpt><trkpt lat="40.51418423311426" lon="9.701127880603739"><ele>549.0</ele><time>2026-04-30T08:24:19Z</time></trkpt><trkpt lat="40.51423522830024" lon="9.701207557279155"><ele>547.0</ele><time>2026-04-30T08:24:20Z</time></trkpt><trkpt lat="40.514293719295104" lon="9.701309635502058"><ele>545.0</ele><time>2026-04-30T08:24:21.001Z</time></trkpt><trkpt lat="40.51435167762378" lon="9.701392793976835"><ele>544.8333333333333</ele><time>2026-04-30T08:24:22.001Z</time></trkpt><trkpt lat="40.51440557344178" lon="9.70148069006874"><ele>544.6666666666666</ele><time>2026-04-30T08:24:23.001Z</time></trkpt><trkpt lat="40.51445590325461" lon="9.701563349204237"><ele>544.5</ele><time>2026-04-30T08:24:24.001Z</time></trkpt><trkpt lat="40.51451203663723" lon="9.701643544047048"><ele>544.3333333333334</ele><time>2026-04-30T08:24:25.001Z</time></trkpt><trkpt lat="40.51457593444182" lon="9.701721352822823"><ele>544.1666666666667</ele><time>2026-04-30T08:24:26.001Z</time></trkpt><trkpt lat="40.51463435532093" lon="9.70179796445862"><ele>544.0</ele><time>2026-04-30T08:24:27.001Z</time></trkpt><trkpt lat="40.51469910418732" lon="9.701878348252075"><ele>543.0</ele><time>2026-04-30T08:24:28.001Z</time></trkpt><trkpt lat="40.51476094802282" lon="9.701950684297628"><ele>542.0</ele><time>2026-04-30T08:24:29.001Z</time></trkpt><trkpt lat="40.51482559484368" lon="9.702020143823253"><ele>541.0</ele><time>2026-04-30T08:24:30.001Z</time></trkpt><trkpt lat="40.51488511671975" lon="9.70207660881431"><ele>540.0</ele><time>2026-04-30T08:24:31.001Z</time></trkpt><trkpt lat="40.514954353592586" lon="9.702134242808196"><ele>539.0</ele><time>2026-04-30T08:24:32.001Z</time></trkpt><trkpt lat="40.51500784013177" lon="9.70220818854109"><ele>538.0</ele><time>2026-04-30T08:24:33.001Z</time></trkpt><trkpt lat="40.51507760156349" lon="9.70230055256911"><ele>538.0</ele><time>2026-04-30T08:24:34.001Z</time></trkpt><trkpt lat="40.51514837619763" lon="9.702404849777784"><ele>538.0</ele><time>2026-04-30T08:24:35.001Z</time></trkpt><trkpt lat="40.51521963760555" lon="9.702518059892896"><ele>538.0</ele><time>2026-04-30T08:24:36.001Z</time></trkpt><trkpt lat="40.51528378614365" lon="9.702636687583542"><ele>538.0</ele><time>2026-04-30T08:24:37.001Z</time></trkpt><trkpt lat="40.515349451653904" lon="9.702760953996432"><ele>538.0</ele><time>2026-04-30T08:24:38.001Z</time></trkpt><trkpt lat="40.5154115515363" lon="9.702888174268127"><ele>536.1999999999999</ele><time>2026-04-30T08:24:39.001Z</time></trkpt><trkpt lat="40.51546118678281" lon="9.703015293533701"><ele>534.4</ele><time>2026-04-30T08:24:40.001Z</time></trkpt><trkpt lat="40.51552162843278" lon="9.703147297233517"><ele>532.5999999999999</ele><time>2026-04-30T08:24:41.001Z</time></trkpt><trkpt lat="40.51557499343313" lon="9.703272431906834"><ele>530.8</ele><time>2026-04-30T08:24:42.001Z</time></trkpt><trkpt lat="40.51560902920461" lon="9.703396631364383"><ele>529.0</ele><time>2026-04-30T08:24:43.001Z</time></trkpt><trkpt lat="40.51563573363006" lon="9.70349072521841"><ele>528.6666666666667</ele><time>2026-04-30T08:24:44.001Z</time></trkpt><trkpt lat="40.51566161619347" lon="9.70359946000607"><ele>528.3333333333334</ele><time>2026-04-30T08:24:45.001Z</time></trkpt><trkpt lat="40.51569159685645" lon="9.703716450607397"><ele>528.0</ele><time>2026-04-30T08:24:46.001Z</time></trkpt><trkpt lat="40.5157185555197" lon="9.703828474419785"><ele>527.6666666666666</ele><time>2026-04-30T08:24:47.001Z</time></trkpt><trkpt lat="40.515744872551124" lon="9.703909421586333"><ele>527.3333333333333</ele><time>2026-04-30T08:24:48.001Z</time></trkpt><trkpt lat="40.51575945475864" lon="9.704000669253027"><ele>527.0</ele><time>2026-04-30T08:24:49.001Z</time></trkpt><trkpt lat="40.51582648537621" lon="9.704058596823394"><ele>527.0</ele><time>2026-04-30T08:24:50.001Z</time></trkpt><trkpt lat="40.515882954611925" lon="9.704124632810691"><ele>527.0</ele><time>2026-04-30T08:24:51.001Z</time></trkpt><trkpt lat="40.51594528947955" lon="9.704193837630099"><ele>527.0</ele><time>2026-04-30T08:24:52.001Z</time></trkpt><trkpt lat="40.51598627689964" lon="9.7042620408362"><ele>527.0</ele><time>2026-04-30T08:24:53.001Z</time></trkpt><trkpt lat="40.51601645590895" lon="9.704363135432951"><ele>527.0</ele><time>2026-04-30T08:24:54.001Z</time></trkpt><trkpt lat="40.5160583214281" lon="9.704466147526102"><ele>527.0</ele><time>2026-04-30T08:24:55.001Z</time></trkpt><trkpt lat="40.51610324215796" lon="9.70457408284235"><ele>527.6</ele><time>2026-04-30T08:24:56.001Z</time></trkpt><trkpt lat="40.51615440262978" lon="9.704681949036988"><ele>528.2</ele><time>2026-04-30T08:24:57.001Z</time></trkpt><trkpt lat="40.516208601743244" lon="9.704763451894953"><ele>528.8</ele><time>2026-04-30T08:24:58.001Z</time></trkpt><trkpt lat="40.516272709725804" lon="9.704807257996102"><ele>529.4</ele><time>2026-04-30T08:24:59.001Z</time></trkpt><trkpt lat="40.51638087478461" lon="9.704875441330836"><ele>530.0</ele><time>2026-04-30T08:25:01.001Z</time></trkpt><trkpt lat="40.51644927826214" lon="9.70494982576683"><ele>530.0</ele><time>2026-04-30T08:25:03.001Z</time></trkpt><trkpt lat="40.516484727260504" lon="9.705051225400066"><ele>530.0</ele><time>2026-04-30T08:25:05.001Z</time></trkpt><trkpt lat="40.516533901510414" lon="9.705142982787489"><ele>530.0</ele><time>2026-04-30T08:25:06.001Z</time></trkpt><trkpt lat="40.51657221348623" lon="9.70526568737293"><ele>530.0</ele><time>2026-04-30T08:25:07.001Z</time></trkpt><trkpt lat="40.51661134724919" lon="9.705391566119076"><ele>530.0</ele><time>2026-04-30T08:25:08.001Z</time></trkpt><trkpt lat="40.516713552011836" lon="9.705564445605543"><ele>530.6666666666666</ele><time>2026-04-30T08:25:10.001Z</time></trkpt><trkpt lat="40.51680041808812" lon="9.70561770102487"><ele>531.3333333333333</ele><time>2026-04-30T08:25:12.001Z</time></trkpt><trkpt lat="40.5168694223166" lon="9.705624281109532"><ele>532.0</ele><time>2026-04-30T08:25:14.001Z</time></trkpt><trkpt lat="40.51680523253711" lon="9.705593759911721"><ele>532.6666666666666</ele><time>2026-04-30T08:25:39.002Z</time></trkpt><trkpt lat="40.516902284325646" lon="9.705605767111651"><ele>533.3333333333334</ele><time>2026-04-30T08:26:28.001Z</time></trkpt><trkpt lat="40.51695824922193" lon="9.705656633840622"><ele>534.0</ele><time>2026-04-30T08:26:29.001Z</time></trkpt><trkpt lat="40.517012207614" lon="9.705708521279009"><ele>532.2</ele><time>2026-04-30T08:26:30.001Z</time></trkpt><trkpt lat="40.517115232951944" lon="9.7058039044803"><ele>530.4</ele><time>2026-04-30T08:26:32.001Z</time></trkpt><trkpt lat="40.51717117757539" lon="9.705855097561953"><ele>528.6</ele><time>2026-04-30T08:26:33.001Z</time></trkpt><trkpt lat="40.51722473970007" lon="9.705902578359309"><ele>526.8</ele><time>2026-04-30T08:26:34.001Z</time></trkpt><trkpt lat="40.51731904763803" lon="9.705981128600376"><ele>525.0</ele><time>2026-04-30T08:26:36.001Z</time></trkpt><trkpt lat="40.51741772446092" lon="9.706069074681412"><ele>524.8</ele><time>2026-04-30T08:26:38.001Z</time></trkpt><trkpt lat="40.517468736532265" lon="9.70612137561017"><ele>524.6</ele><time>2026-04-30T08:26:39.001Z</time></trkpt><trkpt lat="40.51756006110897" lon="9.706239370165854"><ele>524.4</ele><time>2026-04-30T08:26:41.001Z</time></trkpt><trkpt lat="40.517643646965986" lon="9.706354098600066"><ele>524.2</ele><time>2026-04-30T08:26:43.001Z</time></trkpt><trkpt lat="40.51767132180821" lon="9.706433392276518"><ele>524.0</ele><time>2026-04-30T08:26:44.001Z</time></trkpt><trkpt lat="40.5177527465752" lon="9.706541131161512"><ele>524.0</ele><time>2026-04-30T08:26:46.001Z</time></trkpt><trkpt lat="40.51783363592203" lon="9.706655372242379"><ele>524.0</ele><time>2026-04-30T08:26:48.001Z</time></trkpt><trkpt lat="40.517912833840946" lon="9.706773431505612"><ele>524.0</ele><time>2026-04-30T08:26:50.001Z</time></trkpt><trkpt lat="40.518004006036975" lon="9.706880873617402"><ele>524.0</ele><time>2026-04-30T08:26:52.001Z</time></trkpt><trkpt lat="40.5180914995841" lon="9.706965726370361"><ele>521.2</ele><time>2026-04-30T08:26:54.001Z</time></trkpt><trkpt lat="40.51819140842551" lon="9.7070735733867"><ele>518.4</ele><time>2026-04-30T08:26:56.001Z</time></trkpt><trkpt lat="40.5182431763591" lon="9.707129514477888"><ele>515.6</ele><time>2026-04-30T08:26:57.001Z</time></trkpt><trkpt lat="40.51827900500949" lon="9.707204181652623"><ele>512.8</ele><time>2026-04-30T08:26:58.001Z</time></trkpt><trkpt lat="40.51832418165381" lon="9.707270448792935"><ele>510.0</ele><time>2026-04-30T08:26:59.002Z</time></trkpt><trkpt lat="40.51838315667093" lon="9.707410051946418"><ele>510.0</ele><time>2026-04-30T08:27:01.002Z</time></trkpt><trkpt lat="40.51842053871639" lon="9.707551492888006"><ele>510.0</ele><time>2026-04-30T08:27:03.002Z</time></trkpt><trkpt lat="40.51845633206493" lon="9.70767474680172"><ele>510.0</ele><time>2026-04-30T08:27:05.002Z</time></trkpt><trkpt lat="40.518504512871765" lon="9.707802736751866"><ele>510.0</ele><time>2026-04-30T08:27:07.002Z</time></trkpt><trkpt lat="40.51854391127338" lon="9.707896052567133"><ele>510.0</ele><time>2026-04-30T08:27:09.002Z</time></trkpt><trkpt lat="40.518580528358704" lon="9.707966209013739"><ele>508.0</ele><time>2026-04-30T08:27:10.002Z</time></trkpt><trkpt lat="40.51866266277013" lon="9.708095217168301"><ele>506.0</ele><time>2026-04-30T08:27:12.002Z</time></trkpt><trkpt lat="40.51870874391057" lon="9.708157890849876"><ele>504.0</ele><time>2026-04-30T08:27:13.002Z</time></trkpt><trkpt lat="40.51879704196342" lon="9.708261163178669"><ele>502.0</ele><time>2026-04-30T08:27:15.002Z</time></trkpt><trkpt lat="40.518898680972384" lon="9.708344400550528"><ele>500.0</ele><time>2026-04-30T08:27:17.002Z</time></trkpt><trkpt lat="40.51901173577786" lon="9.7083915947117"><ele>500.0</ele><time>2026-04-30T08:27:19.002Z</time></trkpt><trkpt lat="40.51911322293219" lon="9.70844120384694"><ele>500.0</ele><time>2026-04-30T08:27:21.002Z</time></trkpt><trkpt lat="40.51920786426635" lon="9.708482932343593"><ele>500.0</ele><time>2026-04-30T08:27:23.002Z</time></trkpt><trkpt lat="40.519271413199355" lon="9.708488999888768"><ele>500.0</ele><time>2026-04-30T08:27:24.002Z</time></trkpt><trkpt lat="40.51937187402821" lon="9.708503490990406"><ele>500.0</ele><time>2026-04-30T08:27:26.002Z</time></trkpt><trkpt lat="40.51948428473545" lon="9.708525928543382"><ele>497.3333333333333</ele><time>2026-04-30T08:27:28.002Z</time></trkpt><trkpt lat="40.51958022323444" lon="9.708519757695866"><ele>494.66666666666663</ele><time>2026-04-30T08:27:30.002Z</time></trkpt><trkpt lat="40.51968789601381" lon="9.708482277792912"><ele>492.0</ele><time>2026-04-30T08:27:32.002Z</time></trkpt><trkpt lat="40.51975351510528" lon="9.708439318978051"><ele>489.33333333333337</ele><time>2026-04-30T08:27:33.002Z</time></trkpt><trkpt lat="40.51981837278034" lon="9.708433193873049"><ele>486.6666666666667</ele><time>2026-04-30T08:27:34.002Z</time></trkpt><trkpt lat="40.51988070459978" lon="9.708385697456658"><ele>484.0</ele><time>2026-04-30T08:27:35.002Z</time></trkpt><trkpt lat="40.52000242414139" lon="9.708334151656922"><ele>484.0</ele><time>2026-04-30T08:27:37.002Z</time></trkpt><trkpt lat="40.52011954835838" lon="9.708297434198279"><ele>484.0</ele><time>2026-04-30T08:27:39.002Z</time></trkpt><trkpt lat="40.52022503657805" lon="9.70829780065873"><ele>484.0</ele><time>2026-04-30T08:27:41.002Z</time></trkpt><trkpt lat="40.52030291042946" lon="9.70830106566395"><ele>484.0</ele><time>2026-04-30T08:27:43.002Z</time></trkpt><trkpt lat="40.52039872536116" lon="9.708269020464234"><ele>484.0</ele><time>2026-04-30T08:27:45.002Z</time></trkpt><trkpt lat="40.52048114919273" lon="9.708254467325501"><ele>482.0</ele><time>2026-04-30T08:27:47.002Z</time></trkpt><trkpt lat="40.52056674342799" lon="9.708228133961175"><ele>480.0</ele><time>2026-04-30T08:27:49.002Z</time></trkpt><trkpt lat="40.52066657407067" lon="9.70825199695165"><ele>478.0</ele><time>2026-04-30T08:27:51.002Z</time></trkpt><trkpt lat="40.52076156380597" lon="9.708344134686639"><ele>476.0</ele><time>2026-04-30T08:27:53.002Z</time></trkpt><trkpt lat="40.52086551118313" lon="9.708405388930245"><ele>474.0</ele><time>2026-04-30T08:27:55.002Z</time></trkpt><trkpt lat="40.52098323747884" lon="9.70841188460929"><ele>474.0</ele><time>2026-04-30T08:27:57.002Z</time></trkpt><trkpt lat="40.52109184036423" lon="9.708432504139799"><ele>474.0</ele><time>2026-04-30T08:27:59.003Z</time></trkpt><trkpt lat="40.521179842876" lon="9.708503978406462"><ele>474.0</ele><time>2026-04-30T08:28:01.001Z</time></trkpt><trkpt lat="40.52122582455677" lon="9.708568757574172"><ele>474.0</ele><time>2026-04-30T08:28:02.001Z</time></trkpt><trkpt lat="40.521286205508815" lon="9.708631420528363"><ele>474.0</ele><time>2026-04-30T08:28:03.001Z</time></trkpt><trkpt lat="40.52135715917326" lon="9.708702461138058"><ele>474.0</ele><time>2026-04-30T08:28:04.001Z</time></trkpt><trkpt lat="40.52142444886048" lon="9.708769091245472"><ele>472.6</ele><time>2026-04-30T08:28:05.001Z</time></trkpt><trkpt lat="40.521494113974434" lon="9.708836262448337"><ele>471.2</ele><time>2026-04-30T08:28:06.001Z</time></trkpt><trkpt lat="40.521565639579585" lon="9.708900580687692"><ele>469.80000000000007</ele><time>2026-04-30T08:28:07.001Z</time></trkpt><trkpt lat="40.521639438746206" lon="9.708948935200194"><ele>468.40000000000003</ele><time>2026-04-30T08:28:08.001Z</time></trkpt><trkpt lat="40.52172686488644" lon="9.709003341161345"><ele>467.0</ele><time>2026-04-30T08:28:09.001Z</time></trkpt><trkpt lat="40.521836435657605" lon="9.709031842363025"><ele>467.0</ele><time>2026-04-30T08:28:10.001Z</time></trkpt><trkpt lat="40.521930356739105" lon="9.70910148001328"><ele>467.00000000000006</ele><time>2026-04-30T08:28:11.001Z</time></trkpt><trkpt lat="40.522018188329305" lon="9.70911448869"><ele>467.00000000000006</ele><time>2026-04-30T08:28:12.001Z</time></trkpt><trkpt lat="40.52209783135298" lon="9.70911615916415"><ele>467.0</ele><time>2026-04-30T08:28:13.001Z</time></trkpt><trkpt lat="40.52222828243314" lon="9.709099746126173"><ele>467.0</ele><time>2026-04-30T08:28:15.001Z</time></trkpt><trkpt lat="40.52230173385146" lon="9.709102348226855"><ele>467.40000000000003</ele><time>2026-04-30T08:28:16.001Z</time></trkpt><trkpt lat="40.52237718780207" lon="9.709135928297098"><ele>467.80000000000007</ele><time>2026-04-30T08:28:17.001Z</time></trkpt><trkpt lat="40.522490146286174" lon="9.709178831213148"><ele>468.2</ele><time>2026-04-30T08:28:19.001Z</time></trkpt><trkpt lat="40.522562833523665" lon="9.709281276687518"><ele>468.6</ele><time>2026-04-30T08:28:21.001Z</time></trkpt><trkpt lat="40.52259331519633" lon="9.709391873445744"><ele>469.0</ele><time>2026-04-30T08:28:23.001Z</time></trkpt><trkpt lat="40.52267041272018" lon="9.709473717514213"><ele>467.6</ele><time>2026-04-30T08:28:25.001Z</time></trkpt><trkpt lat="40.522737359651714" lon="9.709513267899213"><ele>466.2</ele><time>2026-04-30T08:28:27.001Z</time></trkpt><trkpt lat="40.52283444638749" lon="9.709524573200643"><ele>464.80000000000007</ele><time>2026-04-30T08:28:29.001Z</time></trkpt><trkpt lat="40.52290117235029" lon="9.709486275043512"><ele>463.40000000000003</ele><time>2026-04-30T08:28:31.001Z</time></trkpt><trkpt lat="40.522991896178276" lon="9.70942967805424"><ele>462.0</ele><time>2026-04-30T08:28:33.001Z</time></trkpt><trkpt lat="40.5230789849861" lon="9.709331386304756"><ele>462.0</ele><time>2026-04-30T08:28:35.001Z</time></trkpt><trkpt lat="40.52314921999164" lon="9.70927859547895"><ele>462.0</ele><time>2026-04-30T08:28:38.001Z</time></trkpt><trkpt lat="40.52319813526922" lon="9.70915524261293"><ele>462.0</ele><time>2026-04-30T08:28:40.001Z</time></trkpt><trkpt lat="40.523245294291335" lon="9.709096593537684"><ele>462.0</ele><time>2026-04-30T08:28:41.001Z</time></trkpt><trkpt lat="40.523348853264785" lon="9.709030831755932"><ele>462.0</ele><time>2026-04-30T08:28:43.001Z</time></trkpt><trkpt lat="40.52341626822809" lon="9.709040775209019"><ele>462.0</ele><time>2026-04-30T08:28:44.001Z</time></trkpt><trkpt lat="40.52347955998432" lon="9.709079020294752"><ele>462.0</ele><time>2026-04-30T08:28:45.001Z</time></trkpt><trkpt lat="40.52355551426402" lon="9.709131116658915"><ele>462.00000000000006</ele><time>2026-04-30T08:28:46.001Z</time></trkpt><trkpt lat="40.52363574819791" lon="9.709181431625673"><ele>462.00000000000006</ele><time>2026-04-30T08:28:47.001Z</time></trkpt><trkpt lat="40.52372769658017" lon="9.709234904761225"><ele>462.0</ele><time>2026-04-30T08:28:48.001Z</time></trkpt><trkpt lat="40.52381200044812" lon="9.709280715412605"><ele>462.0</ele><time>2026-04-30T08:28:49.001Z</time></trkpt><trkpt lat="40.52390653640747" lon="9.709332899250965"><ele>464.20000000000005</ele><time>2026-04-30T08:28:50.001Z</time></trkpt><trkpt lat="40.524001120233514" lon="9.709385285740657"><ele>466.40000000000003</ele><time>2026-04-30T08:28:51.001Z</time></trkpt><trkpt lat="40.52409684616307" lon="9.709436710710492"><ele>468.59999999999997</ele><time>2026-04-30T08:28:52.001Z</time></trkpt><trkpt lat="40.52419339750633" lon="9.709498058968054"><ele>470.79999999999995</ele><time>2026-04-30T08:28:53.001Z</time></trkpt><trkpt lat="40.52429150798254" lon="9.70955348235996"><ele>473.0</ele><time>2026-04-30T08:28:54.001Z</time></trkpt><trkpt lat="40.52438786266243" lon="9.709606540748121"><ele>471.0</ele><time>2026-04-30T08:28:55.001Z</time></trkpt><trkpt lat="40.52447169803474" lon="9.709664926932474"><ele>468.99999999999994</ele><time>2026-04-30T08:28:56.001Z</time></trkpt><trkpt lat="40.5245590377261" lon="9.70973242296641"><ele>466.99999999999994</ele><time>2026-04-30T08:28:57.001Z</time></trkpt><trkpt lat="40.5246430401548" lon="9.709788953720302"><ele>465.0</ele><time>2026-04-30T08:28:58.001Z</time></trkpt><trkpt lat="40.52471765068937" lon="9.709813989127527"><ele>463.0</ele><time>2026-04-30T08:28:59.001Z</time></trkpt><trkpt lat="40.52479634707196" lon="9.709867945043984"><ele>463.0</ele><time>2026-04-30T08:29:00.001Z</time></trkpt><trkpt lat="40.52487097402459" lon="9.709928735773106"><ele>462.99999999999994</ele><time>2026-04-30T08:29:01.001Z</time></trkpt><trkpt lat="40.52495909415596" lon="9.709949088004374"><ele>462.99999999999994</ele><time>2026-04-30T08:29:02.001Z</time></trkpt><trkpt lat="40.525043090747914" lon="9.709972425277819"><ele>463.0</ele><time>2026-04-30T08:29:03.001Z</time></trkpt><trkpt lat="40.52512820684254" lon="9.709988495839612"><ele>463.0</ele><time>2026-04-30T08:29:04.001Z</time></trkpt><trkpt lat="40.525242415900316" lon="9.709962152854812"><ele>463.0</ele><time>2026-04-30T08:29:06.002Z</time></trkpt><trkpt lat="40.52533476921264" lon="9.709923655589176"><ele>462.99999999999994</ele><time>2026-04-30T08:29:08.002Z</time></trkpt><trkpt lat="40.525418983092315" lon="9.709858279002852"><ele>462.99999999999994</ele><time>2026-04-30T08:29:10.002Z</time></trkpt><trkpt lat="40.52548863752043" lon="9.709748177197865"><ele>463.0</ele><time>2026-04-30T08:29:12.002Z</time></trkpt><trkpt lat="40.52555120954778" lon="9.709676685856019"><ele>463.0</ele><time>2026-04-30T08:29:13.002Z</time></trkpt><trkpt lat="40.525606684959534" lon="9.709594915636972"><ele>462.1666666666667</ele><time>2026-04-30T08:29:14.002Z</time></trkpt><trkpt lat="40.525662066709096" lon="9.709513283479069"><ele>461.33333333333337</ele><time>2026-04-30T08:29:15.002Z</time></trkpt><trkpt lat="40.525714626953764" lon="9.70943581018157"><ele>460.5</ele><time>2026-04-30T08:29:16.002Z</time></trkpt><trkpt lat="40.525771573047464" lon="9.709351903315229"><ele>459.66666666666663</ele><time>2026-04-30T08:29:17.002Z</time></trkpt><trkpt lat="40.52582743887455" lon="9.709271217246853"><ele>458.8333333333333</ele><time>2026-04-30T08:29:18.002Z</time></trkpt><trkpt lat="40.52587638743307" lon="9.70918579496577"><ele>458.0</ele><time>2026-04-30T08:29:19.002Z</time></trkpt><trkpt lat="40.525940249241415" lon="9.709109496404535"><ele>457.99999999999994</ele><time>2026-04-30T08:29:20.002Z</time></trkpt><trkpt lat="40.52601308113569" lon="9.70905578724015"><ele>458.0</ele><time>2026-04-30T08:29:21.002Z</time></trkpt><trkpt lat="40.52606379433513" lon="9.708990765424016"><ele>458.0</ele><time>2026-04-30T08:29:22.002Z</time></trkpt><trkpt lat="40.5261276756515" lon="9.708976024530747"><ele>458.0</ele><time>2026-04-30T08:29:23.002Z</time></trkpt><trkpt lat="40.526223823992915" lon="9.708962676514119"><ele>457.99999999999994</ele><time>2026-04-30T08:29:25.002Z</time></trkpt><trkpt lat="40.52632280928322" lon="9.7089962850723"><ele>458.0</ele><time>2026-04-30T08:29:27.002Z</time></trkpt><trkpt lat="40.52642044137239" lon="9.709010548462656"><ele>455.2</ele><time>2026-04-30T08:29:29.002Z</time></trkpt><trkpt lat="40.526502268903066" lon="9.708996429086904"><ele>452.4</ele><time>2026-04-30T08:29:31.002Z</time></trkpt><trkpt lat="40.52661370868142" lon="9.708968991569774"><ele>449.59999999999997</ele><time>2026-04-30T08:29:33.002Z</time></trkpt><trkpt lat="40.52669805793338" lon="9.70897892451527"><ele>446.79999999999995</ele><time>2026-04-30T08:29:35.002Z</time></trkpt><trkpt lat="40.52678586915805" lon="9.70905244978922"><ele>444.0</ele><time>2026-04-30T08:29:37.002Z</time></trkpt><trkpt lat="40.52686208996488" lon="9.709099584749497"><ele>444.0</ele><time>2026-04-30T08:29:39.002Z</time></trkpt><trkpt lat="40.52693842594066" lon="9.7090889666307"><ele>444.0</ele><time>2026-04-30T08:29:43.002Z</time></trkpt><trkpt lat="40.52702010182496" lon="9.709028585241397"><ele>444.0</ele><time>2026-04-30T08:29:46.002Z</time></trkpt><trkpt lat="40.527015531743636" lon="9.708907915635953"><ele>444.0</ele><time>2026-04-30T08:29:48.002Z</time></trkpt><trkpt lat="40.52699633067046" lon="9.70878114454865"><ele>444.0</ele><time>2026-04-30T08:29:50.002Z</time></trkpt><trkpt lat="40.527011736460025" lon="9.708691450818739"><ele>444.0</ele><time>2026-04-30T08:29:53.002Z</time></trkpt><trkpt lat="40.527099026851985" lon="9.708653589311576"><ele>441.6</ele><time>2026-04-30T08:29:55.002Z</time></trkpt><trkpt lat="40.52720802291774" lon="9.708612462844272"><ele>439.2</ele><time>2026-04-30T08:29:57.002Z</time></trkpt><trkpt lat="40.52730442643675" lon="9.70856728874451"><ele>436.80000000000007</ele><time>2026-04-30T08:29:59.002Z</time></trkpt><trkpt lat="40.52739111439757" lon="9.708519996463098"><ele>434.40000000000003</ele><time>2026-04-30T08:30:01.002Z</time></trkpt><trkpt lat="40.52748637682047" lon="9.70850942165865"><ele>432.0</ele><time>2026-04-30T08:30:03.002Z</time></trkpt><trkpt lat="40.52755766064699" lon="9.708506396568373"><ele>432.0</ele><time>2026-04-30T08:30:05.002Z</time></trkpt><trkpt lat="40.52761550597373" lon="9.708442199051294"><ele>432.00000000000006</ele><time>2026-04-30T08:30:07.001Z</time></trkpt><trkpt lat="40.52769992642402" lon="9.708328132336058"><ele>432.00000000000006</ele><time>2026-04-30T08:30:09.001Z</time></trkpt><trkpt lat="40.527794431836526" lon="9.708217196058131"><ele>432.0</ele><time>2026-04-30T08:30:11.001Z</time></trkpt><trkpt lat="40.52785286476441" lon="9.708163327002303"><ele>432.0</ele><time>2026-04-30T08:30:12.001Z</time></trkpt><trkpt lat="40.52791380278049" lon="9.708112073982287"><ele>427.20000000000005</ele><time>2026-04-30T08:30:13.001Z</time></trkpt><trkpt lat="40.52803213708685" lon="9.708018581259282"><ele>422.40000000000003</ele><time>2026-04-30T08:30:15.001Z</time></trkpt><trkpt lat="40.528103280283496" lon="9.707960050453238"><ele>417.6</ele><time>2026-04-30T08:30:16.001Z</time></trkpt><trkpt lat="40.52816684945322" lon="9.707921590736877"><ele>412.79999999999995</ele><time>2026-04-30T08:30:17.001Z</time></trkpt><trkpt lat="40.528280338083356" lon="9.707863024783352"><ele>408.0</ele><time>2026-04-30T08:30:19.001Z</time></trkpt><trkpt lat="40.52834948291655" lon="9.707839979111675"><ele>408.0</ele><time>2026-04-30T08:30:20Z</time></trkpt><trkpt lat="40.52841970621062" lon="9.70783829979056"><ele>408.0</ele><time>2026-04-30T08:30:21Z</time></trkpt><trkpt lat="40.528524880296764" lon="9.707816526237071"><ele>408.0</ele><time>2026-04-30T08:30:22Z</time></trkpt><trkpt lat="40.52861003151948" lon="9.707856853325415"><ele>408.0</ele><time>2026-04-30T08:30:23Z</time></trkpt><trkpt lat="40.52869793058027" lon="9.707851870225126"><ele>408.0</ele><time>2026-04-30T08:30:24Z</time></trkpt><trkpt lat="40.528768000507654" lon="9.707813689273543"><ele>408.0</ele><time>2026-04-30T08:30:25Z</time></trkpt><trkpt lat="40.52886172650053" lon="9.707801345931745"><ele>406.1666666666667</ele><time>2026-04-30T08:30:26Z</time></trkpt><trkpt lat="40.52893371657788" lon="9.70779291902015"><ele>404.33333333333337</ele><time>2026-04-30T08:30:27Z</time></trkpt><trkpt lat="40.529004182945265" lon="9.707843141635266"><ele>402.5</ele><time>2026-04-30T08:30:28Z</time></trkpt><trkpt lat="40.52908294368569" lon="9.707879994110003"><ele>400.6666666666667</ele><time>2026-04-30T08:30:29Z</time></trkpt><trkpt lat="40.52918246536651" lon="9.707891182985323"><ele>398.83333333333337</ele><time>2026-04-30T08:30:31Z</time></trkpt><trkpt lat="40.52928599661522" lon="9.707840489246639"><ele>397.0</ele><time>2026-04-30T08:30:33Z</time></trkpt><trkpt lat="40.529403093408725" lon="9.707812102858325"><ele>397.0</ele><time>2026-04-30T08:30:35.001Z</time></trkpt><trkpt lat="40.52946704716192" lon="9.707813871109753"><ele>397.0</ele><time>2026-04-30T08:30:36.001Z</time></trkpt><trkpt lat="40.5295821425312" lon="9.70781177217061"><ele>397.0</ele><time>2026-04-30T08:30:38.001Z</time></trkpt><trkpt lat="40.529645456430025" lon="9.70780925562017"><ele>397.0</ele><time>2026-04-30T08:30:39.001Z</time></trkpt><trkpt lat="40.529772084637216" lon="9.70779580877548"><ele>397.0</ele><time>2026-04-30T08:30:41.001Z</time></trkpt><trkpt lat="40.52984893953393" lon="9.707753199238736"><ele>396.0</ele><time>2026-04-30T08:30:42.001Z</time></trkpt><trkpt lat="40.529986175076246" lon="9.70771002532605"><ele>395.0</ele><time>2026-04-30T08:30:44.001Z</time></trkpt><trkpt lat="40.530068916779946" lon="9.707737688612758"><ele>394.0</ele><time>2026-04-30T08:30:45.001Z</time></trkpt><trkpt lat="40.530159956725626" lon="9.707752534220123"><ele>393.0</ele><time>2026-04-30T08:30:46.001Z</time></trkpt><trkpt lat="40.530228787126134" lon="9.707801895592036"><ele>392.0</ele><time>2026-04-30T08:30:47.001Z</time></trkpt><trkpt lat="40.53034014748788" lon="9.707780858201197"><ele>391.25</ele><time>2026-04-30T08:30:49.001Z</time></trkpt><trkpt lat="40.53044381373617" lon="9.707706647925157"><ele>390.5</ele><time>2026-04-30T08:30:51.001Z</time></trkpt><trkpt lat="40.53049404071104" lon="9.707650437528914"><ele>389.75</ele><time>2026-04-30T08:30:53.001Z</time></trkpt><trkpt lat="40.53054439864453" lon="9.707585335853436"><ele>389.0</ele><time>2026-04-30T08:30:57.001Z</time></trkpt><trkpt lat="40.53074085552964" lon="9.707694320718305"><ele>389.0</ele><time>2026-04-30T08:31:00.001Z</time></trkpt><trkpt lat="40.530829514803365" lon="9.707736585986362"><ele>389.0</ele><time>2026-04-30T08:31:03.001Z</time></trkpt><trkpt lat="40.53092166111289" lon="9.707758909421525"><ele>389.0</ele><time>2026-04-30T08:31:05.001Z</time></trkpt><trkpt lat="40.531028082582665" lon="9.70781060817395"><ele>389.0</ele><time>2026-04-30T08:31:07.001Z</time></trkpt><trkpt lat="40.53113215497855" lon="9.707860470247486"><ele>389.0</ele><time>2026-04-30T08:31:09.001Z</time></trkpt><trkpt lat="40.53123994832581" lon="9.70792525602967"><ele>386.16666666666663</ele><time>2026-04-30T08:31:11.001Z</time></trkpt><trkpt lat="40.531330104791465" lon="9.70803567118755"><ele>383.3333333333333</ele><time>2026-04-30T08:31:13.001Z</time></trkpt><trkpt lat="40.531359609305994" lon="9.708118510603695"><ele>380.5</ele><time>2026-04-30T08:31:14.001Z</time></trkpt><trkpt lat="40.53141712636762" lon="9.708175948353778"><ele>377.66666666666663</ele><time>2026-04-30T08:31:15.001Z</time></trkpt><trkpt lat="40.531459787124746" lon="9.708243773486975"><ele>374.8333333333333</ele><time>2026-04-30T08:31:16.001Z</time></trkpt><trkpt lat="40.53150508056917" lon="9.708310544616365"><ele>372.0</ele><time>2026-04-30T08:31:17.001Z</time></trkpt><trkpt lat="40.53156000732062" lon="9.708385789176866"><ele>372.00000000000006</ele><time>2026-04-30T08:31:18.001Z</time></trkpt><trkpt lat="40.53161303020667" lon="9.70845009305116"><ele>372.0</ele><time>2026-04-30T08:31:19.001Z</time></trkpt><trkpt lat="40.53165204884605" lon="9.708526402746394"><ele>372.0</ele><time>2026-04-30T08:31:20.001Z</time></trkpt><trkpt lat="40.531700721196586" lon="9.708584438402372"><ele>372.0</ele><time>2026-04-30T08:31:21.001Z</time></trkpt><trkpt lat="40.53175979861053" lon="9.708618005548415"><ele>372.0</ele><time>2026-04-30T08:31:22.001Z</time></trkpt><trkpt lat="40.53183537384421" lon="9.708670135461348"><ele>372.00000000000006</ele><time>2026-04-30T08:31:24.001Z</time></trkpt><trkpt lat="40.53190881789483" lon="9.70869437067353"><ele>372.0</ele><time>2026-04-30T08:31:26.001Z</time></trkpt><trkpt lat="40.532010195452294" lon="9.70873288649424"><ele>370.5</ele><time>2026-04-30T08:31:28.001Z</time></trkpt><trkpt lat="40.53210441641762" lon="9.708815006256016"><ele>369.0</ele><time>2026-04-30T08:31:30.001Z</time></trkpt><trkpt lat="40.532155557328686" lon="9.708867436379034"><ele>367.5</ele><time>2026-04-30T08:31:31.001Z</time></trkpt><trkpt lat="40.5322053423822" lon="9.708926444703227"><ele>366.0</ele><time>2026-04-30T08:31:32.001Z</time></trkpt><trkpt lat="40.532247586295675" lon="9.70898844744092"><ele>364.5</ele><time>2026-04-30T08:31:33.001Z</time></trkpt><trkpt lat="40.532305646172425" lon="9.709081957449685"><ele>363.0</ele><time>2026-04-30T08:31:35.001Z</time></trkpt><trkpt lat="40.532351999672144" lon="9.709221700849218"><ele>363.0</ele><time>2026-04-30T08:31:37.001Z</time></trkpt><trkpt lat="40.5324056260231" lon="9.709287248125394"><ele>363.0</ele><time>2026-04-30T08:31:38.001Z</time></trkpt><trkpt lat="40.532476461587166" lon="9.709367972577516"><ele>363.0</ele><time>2026-04-30T08:31:39.001Z</time></trkpt><trkpt lat="40.53256169024094" lon="9.709463150165643"><ele>363.0</ele><time>2026-04-30T08:31:40.002Z</time></trkpt><trkpt lat="40.53265192231278" lon="9.709555626375074"><ele>363.0</ele><time>2026-04-30T08:31:41.002Z</time></trkpt><trkpt lat="40.53271668141444" lon="9.709630524817262"><ele>362.5</ele><time>2026-04-30T08:31:42.002Z</time></trkpt><trkpt lat="40.532780953069725" lon="9.70970590735791"><ele>362.0</ele><time>2026-04-30T08:31:43.002Z</time></trkpt><trkpt lat="40.53284636792561" lon="9.709774386133006"><ele>361.5</ele><time>2026-04-30T08:31:44.002Z</time></trkpt><trkpt lat="40.53291961814398" lon="9.70984342298674"><ele>361.0</ele><time>2026-04-30T08:31:45.002Z</time></trkpt><trkpt lat="40.53299382359202" lon="9.709915796452512"><ele>360.5</ele><time>2026-04-30T08:31:46.002Z</time></trkpt><trkpt lat="40.533053037200865" lon="9.710005057441201"><ele>360.0</ele><time>2026-04-30T08:31:47.002Z</time></trkpt><trkpt lat="40.53312285781068" lon="9.710085291705171"><ele>360.0</ele><time>2026-04-30T08:31:48.002Z</time></trkpt><trkpt lat="40.533198996204916" lon="9.710175201967163"><ele>360.0</ele><time>2026-04-30T08:31:49.002Z</time></trkpt><trkpt lat="40.53327473443381" lon="9.710266382327095"><ele>360.0</ele><time>2026-04-30T08:31:50.002Z</time></trkpt><trkpt lat="40.53334685220918" lon="9.710356435607045"><ele>360.0</ele><time>2026-04-30T08:31:51.002Z</time></trkpt><trkpt lat="40.5334202680649" lon="9.710448212261005"><ele>360.0</ele><time>2026-04-30T08:31:52.002Z</time></trkpt><trkpt lat="40.53349227017633" lon="9.710534432476175"><ele>360.2</ele><time>2026-04-30T08:31:53.002Z</time></trkpt><trkpt lat="40.53356887778394" lon="9.71063282858269"><ele>360.4</ele><time>2026-04-30T08:31:54.002Z</time></trkpt><trkpt lat="40.533639859166065" lon="9.710705714827261"><ele>360.6</ele><time>2026-04-30T08:31:55.002Z</time></trkpt><trkpt lat="40.53375571444359" lon="9.71072095399706"><ele>360.8</ele><time>2026-04-30T08:31:57.002Z</time></trkpt><trkpt lat="40.53382547316006" lon="9.71073411100112"><ele>361.0</ele><time>2026-04-30T08:31:58.002Z</time></trkpt><trkpt lat="40.53390875161183" lon="9.710731479359534"><ele>361.0</ele><time>2026-04-30T08:31:59.002Z</time></trkpt><trkpt lat="40.53398307307544" lon="9.710714188082273"><ele>361.0</ele><time>2026-04-30T08:32:00.002Z</time></trkpt><trkpt lat="40.53405488464251" lon="9.71070460864319"><ele>361.0</ele><time>2026-04-30T08:32:01.002Z</time></trkpt><trkpt lat="40.53412236353282" lon="9.71071320345229"><ele>361.0</ele><time>2026-04-30T08:32:02.002Z</time></trkpt><trkpt lat="40.534230319630254" lon="9.710704616188787"><ele>361.0</ele><time>2026-04-30T08:32:04.002Z</time></trkpt><trkpt lat="40.534295804655805" lon="9.71071674901311"><ele>361.0</ele><time>2026-04-30T08:32:06.002Z</time></trkpt><trkpt lat="40.53451578051107" lon="9.710627830915021"><ele>361.0</ele><time>2026-04-30T08:32:10.002Z</time></trkpt><trkpt lat="40.534532240890556" lon="9.710512637531345"><ele>361.0</ele><time>2026-04-30T08:32:11.002Z</time></trkpt><trkpt lat="40.53412443923175" lon="9.7105339713813"><ele>361.0</ele><time>2026-04-30T08:32:12.002Z</time></trkpt><trkpt lat="40.53404469013646" lon="9.710470555078006"><ele>361.0</ele><time>2026-04-30T08:32:13.001Z</time></trkpt><trkpt lat="40.53398177388805" lon="9.710430560586577"><ele>361.0</ele><time>2026-04-30T08:32:14.001Z</time></trkpt><trkpt lat="40.533932256820435" lon="9.710375548597455"><ele>361.0</ele><time>2026-04-30T08:32:15.001Z</time></trkpt><trkpt lat="40.53386170404698" lon="9.710335974620001"><ele>361.0</ele><time>2026-04-30T08:32:16.001Z</time></trkpt><trkpt lat="40.53444912212291" lon="9.70987967680214"><ele>360.66666666666663</ele><time>2026-04-30T08:32:18.001Z</time></trkpt><trkpt lat="40.534474898137745" lon="9.709772564064588"><ele>360.3333333333333</ele><time>2026-04-30T08:32:19.001Z</time></trkpt><trkpt lat="40.53449882221027" lon="9.709676425927535"><ele>360.0</ele><time>2026-04-30T08:32:20.001Z</time></trkpt><trkpt lat="40.53450178081556" lon="9.709591984819248"><ele>359.6666666666667</ele><time>2026-04-30T08:32:21.001Z</time></trkpt><trkpt lat="40.5344666876978" lon="9.709447326961726"><ele>359.33333333333337</ele><time>2026-04-30T08:32:23Z</time></trkpt><trkpt lat="40.534413191717285" lon="9.709387202165411"><ele>359.0</ele><time>2026-04-30T08:32:24Z</time></trkpt><trkpt lat="40.53434084020387" lon="9.709319693408853"><ele>357.4</ele><time>2026-04-30T08:32:25.001Z</time></trkpt><trkpt lat="40.53425955478573" lon="9.70922788078696"><ele>355.79999999999995</ele><time>2026-04-30T08:32:26Z</time></trkpt><trkpt lat="40.53416151370626" lon="9.709144995215226"><ele>354.20000000000005</ele><time>2026-04-30T08:32:27.001Z</time></trkpt><trkpt lat="40.53406616647358" lon="9.709065688463511"><ele>352.6</ele><time>2026-04-30T08:32:28.001Z</time></trkpt><trkpt lat="40.53398090224188" lon="9.709000309806731"><ele>351.0</ele><time>2026-04-30T08:32:29.001Z</time></trkpt><trkpt lat="40.533897402513254" lon="9.708958295954762"><ele>351.0</ele><time>2026-04-30T08:32:30.001Z</time></trkpt><trkpt lat="40.53382878859587" lon="9.70893538443704"><ele>351.0</ele><time>2026-04-30T08:32:31.001Z</time></trkpt><trkpt lat="40.53376290142196" lon="9.708933390086687"><ele>351.0</ele><time>2026-04-30T08:32:32.001Z</time></trkpt><trkpt lat="40.53369270781951" lon="9.708991195299802"><ele>351.0</ele><time>2026-04-30T08:32:33.001Z</time></trkpt><trkpt lat="40.53360817858347" lon="9.709034552774558"><ele>351.0</ele><time>2026-04-30T08:32:34.001Z</time></trkpt><trkpt lat="40.533521181827204" lon="9.70903194612552"><ele>351.0</ele><time>2026-04-30T08:32:35.001Z</time></trkpt><trkpt lat="40.53343291031723" lon="9.709014711814872"><ele>351.1666666666667</ele><time>2026-04-30T08:32:36.001Z</time></trkpt><trkpt lat="40.533335715924274" lon="9.708993404026726"><ele>351.3333333333333</ele><time>2026-04-30T08:32:37.001Z</time></trkpt><trkpt lat="40.533247106614795" lon="9.70898836993168"><ele>351.5</ele><time>2026-04-30T08:32:38.001Z</time></trkpt><trkpt lat="40.53317539109685" lon="9.708981813279085"><ele>351.66666666666663</ele><time>2026-04-30T08:32:39.001Z</time></trkpt><trkpt lat="40.53311274748269" lon="9.70896180275566"><ele>351.8333333333333</ele><time>2026-04-30T08:32:40.001Z</time></trkpt><trkpt lat="40.53306848660809" lon="9.70889457565446"><ele>352.0</ele><time>2026-04-30T08:32:41.001Z</time></trkpt><trkpt lat="40.53304126844794" lon="9.708811288210779"><ele>352.0</ele><time>2026-04-30T08:32:42.001Z</time></trkpt><trkpt lat="40.53302767481121" lon="9.708724195404816"><ele>352.0</ele><time>2026-04-30T08:32:43.001Z</time></trkpt><trkpt lat="40.53302230590271" lon="9.708635715180856"><ele>352.0</ele><time>2026-04-30T08:32:44.001Z</time></trkpt><trkpt lat="40.5330024186831" lon="9.70854720497203"><ele>352.0</ele><time>2026-04-30T08:32:45.001Z</time></trkpt><trkpt lat="40.532956962320256" lon="9.708454513126268"><ele>352.0</ele><time>2026-04-30T08:32:46.001Z</time></trkpt><trkpt lat="40.53289877865462" lon="9.708384676895767"><ele>352.0</ele><time>2026-04-30T08:32:47.001Z</time></trkpt><trkpt lat="40.53283109055049" lon="9.708297200633115"><ele>351.8</ele><time>2026-04-30T08:32:48.001Z</time></trkpt><trkpt lat="40.53276691112741" lon="9.708189159308066"><ele>351.6</ele><time>2026-04-30T08:32:49.001Z</time></trkpt><trkpt lat="40.532721241421285" lon="9.708079717087523"><ele>351.40000000000003</ele><time>2026-04-30T08:32:50.001Z</time></trkpt><trkpt lat="40.53267836586736" lon="9.70794927175567"><ele>351.20000000000005</ele><time>2026-04-30T08:32:51.001Z</time></trkpt><trkpt lat="40.53264146674307" lon="9.707853808905956"><ele>351.0</ele><time>2026-04-30T08:32:52.001Z</time></trkpt><trkpt lat="40.53260182899662" lon="9.707758173589928"><ele>348.6</ele><time>2026-04-30T08:32:53.001Z</time></trkpt><trkpt lat="40.53258412375353" lon="9.707640570683353"><ele>346.20000000000005</ele><time>2026-04-30T08:32:54.001Z</time></trkpt><trkpt lat="40.53257203939633" lon="9.707523817722755"><ele>343.79999999999995</ele><time>2026-04-30T08:32:55.001Z</time></trkpt><trkpt lat="40.53257043432484" lon="9.707391606211813"><ele>341.4</ele><time>2026-04-30T08:32:56.001Z</time></trkpt><trkpt lat="40.53256500531509" lon="9.707272195092328"><ele>339.0</ele><time>2026-04-30T08:32:57.001Z</time></trkpt><trkpt lat="40.53253553824791" lon="9.707160682146622"><ele>339.0</ele><time>2026-04-30T08:32:58.001Z</time></trkpt><trkpt lat="40.53249697259188" lon="9.707067825791887"><ele>339.0</ele><time>2026-04-30T08:32:59.001Z</time></trkpt><trkpt lat="40.53244376907032" lon="9.706985164035322"><ele>339.0</ele><time>2026-04-30T08:33:00.001Z</time></trkpt><trkpt lat="40.53238462386385" lon="9.706922437689904"><ele>339.0</ele><time>2026-04-30T08:33:01.001Z</time></trkpt><trkpt lat="40.532316922443265" lon="9.706879467620704"><ele>339.0</ele><time>2026-04-30T08:33:02.001Z</time></trkpt><trkpt lat="40.532242025078844" lon="9.706852313009868"><ele>339.0</ele><time>2026-04-30T08:33:03.001Z</time></trkpt><trkpt lat="40.532149261802225" lon="9.706835110955994"><ele>336.4</ele><time>2026-04-30T08:33:04.001Z</time></trkpt><trkpt lat="40.53206270991245" lon="9.706827375974457"><ele>333.79999999999995</ele><time>2026-04-30T08:33:05.001Z</time></trkpt><trkpt lat="40.53197709102056" lon="9.706740553649839"><ele>331.20000000000005</ele><time>2026-04-30T08:33:07.001Z</time></trkpt><trkpt lat="40.53201267310569" lon="9.706577759483919"><ele>328.6</ele><time>2026-04-30T08:33:09.001Z</time></trkpt><trkpt lat="40.532052830544835" lon="9.706475784304988"><ele>326.0</ele><time>2026-04-30T08:33:10.001Z</time></trkpt><trkpt lat="40.53210779622802" lon="9.70636970940644"><ele>326.0</ele><time>2026-04-30T08:33:11.001Z</time></trkpt><trkpt lat="40.53213585691505" lon="9.706238070824972"><ele>326.0</ele><time>2026-04-30T08:33:12.001Z</time></trkpt><trkpt lat="40.53217270369912" lon="9.706125585981322"><ele>326.0</ele><time>2026-04-30T08:33:13.001Z</time></trkpt><trkpt lat="40.532227459969974" lon="9.706008073419746"><ele>326.0</ele><time>2026-04-30T08:33:14.001Z</time></trkpt><trkpt lat="40.53226458832998" lon="9.705884648203057"><ele>326.0</ele><time>2026-04-30T08:33:15.001Z</time></trkpt><trkpt lat="40.53228239106947" lon="9.705771749965743"><ele>325.0</ele><time>2026-04-30T08:33:16.001Z</time></trkpt><trkpt lat="40.53229260348375" lon="9.705650368938644"><ele>324.0</ele><time>2026-04-30T08:33:17.001Z</time></trkpt><trkpt lat="40.53228193455884" lon="9.70552712386205"><ele>323.0</ele><time>2026-04-30T08:33:18.001Z</time></trkpt><trkpt lat="40.532275103413085" lon="9.70539278014433"><ele>322.0</ele><time>2026-04-30T08:33:19.001Z</time></trkpt><trkpt lat="40.53228284219617" lon="9.705272483436413"><ele>321.0</ele><time>2026-04-30T08:33:20.001Z</time></trkpt><trkpt lat="40.53229473117546" lon="9.705156154645467"><ele>321.0</ele><time>2026-04-30T08:33:21.001Z</time></trkpt><trkpt lat="40.53231894923074" lon="9.705040444180083"><ele>321.0</ele><time>2026-04-30T08:33:22.001Z</time></trkpt><trkpt lat="40.53235403051259" lon="9.704937657362926"><ele>321.0</ele><time>2026-04-30T08:33:23.001Z</time></trkpt><trkpt lat="40.532408196399075" lon="9.704820604061656"><ele>321.0</ele><time>2026-04-30T08:33:24.001Z</time></trkpt><trkpt lat="40.53245464492865" lon="9.70471496967994"><ele>321.0</ele><time>2026-04-30T08:33:25.001Z</time></trkpt><trkpt lat="40.53249162565724" lon="9.704627530562624"><ele>321.0</ele><time>2026-04-30T08:33:26.001Z</time></trkpt><trkpt lat="40.532534980373" lon="9.704535149648903"><ele>321.0</ele><time>2026-04-30T08:33:27.001Z</time></trkpt><trkpt lat="40.53254991342558" lon="9.704412306094742"><ele>321.0</ele><time>2026-04-30T08:33:28.001Z</time></trkpt><trkpt lat="40.53259914734535" lon="9.704334889812117"><ele>321.0</ele><time>2026-04-30T08:33:29.001Z</time></trkpt><trkpt lat="40.53259917736007" lon="9.704242593629667"><ele>321.0</ele><time>2026-04-30T08:33:30.001Z</time></trkpt><trkpt lat="40.53258706431429" lon="9.704157351463428"><ele>321.0</ele><time>2026-04-30T08:33:31.001Z</time></trkpt><trkpt lat="40.5325343979707" lon="9.703994642311043"><ele>321.1666666666667</ele><time>2026-04-30T08:33:33.001Z</time></trkpt><trkpt lat="40.532495361644614" lon="9.70386708782737"><ele>321.3333333333333</ele><time>2026-04-30T08:33:34.001Z</time></trkpt><trkpt lat="40.53248993317498" lon="9.70375974953348"><ele>321.5</ele><time>2026-04-30T08:33:35.001Z</time></trkpt><trkpt lat="40.53248732900218" lon="9.703652962196138"><ele>321.66666666666663</ele><time>2026-04-30T08:33:36.001Z</time></trkpt><trkpt lat="40.53248038579242" lon="9.703524505536006"><ele>321.8333333333333</ele><time>2026-04-30T08:33:37.001Z</time></trkpt><trkpt lat="40.532483473433665" lon="9.70343985766758"><ele>322.0</ele><time>2026-04-30T08:33:38.002Z</time></trkpt><trkpt lat="40.532449541186125" lon="9.703287844954607"><ele>321.0</ele><time>2026-04-30T08:33:40.002Z</time></trkpt><trkpt lat="40.53246637856073" lon="9.703146346335997"><ele>320.0</ele><time>2026-04-30T08:33:42.002Z</time></trkpt><trkpt lat="40.53252722199196" lon="9.703068180021374"><ele>319.0</ele><time>2026-04-30T08:33:43.002Z</time></trkpt><trkpt lat="40.53258387441175" lon="9.702987448080455"><ele>318.0</ele><time>2026-04-30T08:33:44.002Z</time></trkpt><trkpt lat="40.53264348367389" lon="9.702897555018817"><ele>317.0</ele><time>2026-04-30T08:33:45.002Z</time></trkpt><trkpt lat="40.53269132880192" lon="9.702810313036457"><ele>316.0</ele><time>2026-04-30T08:33:46.002Z</time></trkpt><trkpt lat="40.53273147853352" lon="9.702722575328613"><ele>315.0</ele><time>2026-04-30T08:33:47.002Z</time></trkpt><trkpt lat="40.532785662092046" lon="9.702651972213063"><ele>314.0</ele><time>2026-04-30T08:33:48.002Z</time></trkpt><trkpt lat="40.53281070017403" lon="9.702574178305895"><ele>313.0</ele><time>2026-04-30T08:33:49.002Z</time></trkpt><trkpt lat="40.53284765768537" lon="9.702503695961898"><ele>312.0</ele><time>2026-04-30T08:33:50.002Z</time></trkpt><trkpt lat="40.53290588826982" lon="9.702439075015196"><ele>311.0</ele><time>2026-04-30T08:33:51.002Z</time></trkpt><trkpt lat="40.532987628585275" lon="9.702387355305868"><ele>307.1666666666667</ele><time>2026-04-30T08:33:52.002Z</time></trkpt><trkpt lat="40.533074302299845" lon="9.702338523357845"><ele>303.33333333333337</ele><time>2026-04-30T08:33:53.002Z</time></trkpt><trkpt lat="40.53314878207096" lon="9.702270952323577"><ele>299.5</ele><time>2026-04-30T08:33:54.002Z</time></trkpt><trkpt lat="40.53320832059608" lon="9.702210238156015"><ele>295.6666666666667</ele><time>2026-04-30T08:33:55.002Z</time></trkpt><trkpt lat="40.53325859287335" lon="9.702127211422065"><ele>291.8333333333333</ele><time>2026-04-30T08:33:56.002Z</time></trkpt><trkpt lat="40.53329171103418" lon="9.702031758030826"><ele>288.0</ele><time>2026-04-30T08:33:57.002Z</time></trkpt><trkpt lat="40.53330889383474" lon="9.701927218294154"><ele>288.3333333333333</ele><time>2026-04-30T08:33:58.002Z</time></trkpt><trkpt lat="40.53330923812929" lon="9.701808941453676"><ele>288.6666666666667</ele><time>2026-04-30T08:33:59.002Z</time></trkpt><trkpt lat="40.533312238533696" lon="9.701703099960172"><ele>289.0</ele><time>2026-04-30T08:34:00.002Z</time></trkpt><trkpt lat="40.53331278413191" lon="9.70159012105279"><ele>289.33333333333337</ele><time>2026-04-30T08:34:01.002Z</time></trkpt><trkpt lat="40.53331886960925" lon="9.701480177222688"><ele>289.6666666666667</ele><time>2026-04-30T08:34:02.002Z</time></trkpt><trkpt lat="40.533327011862085" lon="9.701383440396304"><ele>290.0</ele><time>2026-04-30T08:34:03.002Z</time></trkpt><trkpt lat="40.53331030794165" lon="9.701203114227622"><ele>290.0</ele><time>2026-04-30T08:34:05.002Z</time></trkpt><trkpt lat="40.533298933922495" lon="9.701121165307391"><ele>290.0</ele><time>2026-04-30T08:34:06.002Z</time></trkpt><trkpt lat="40.533325536678376" lon="9.700982226830327"><ele>290.0</ele><time>2026-04-30T08:34:08.002Z</time></trkpt><trkpt lat="40.53337432993343" lon="9.700915230554727"><ele>290.0</ele><time>2026-04-30T08:34:09.002Z</time></trkpt><trkpt lat="40.533437510494196" lon="9.700836299018611"><ele>290.0</ele><time>2026-04-30T08:34:10.002Z</time></trkpt><trkpt lat="40.53348390776027" lon="9.700777187935612"><ele>290.0</ele><time>2026-04-30T08:34:11.002Z</time></trkpt><trkpt lat="40.53351262045861" lon="9.700696452615219"><ele>288.8</ele><time>2026-04-30T08:34:12.002Z</time></trkpt><trkpt lat="40.53354309185366" lon="9.700584681613305"><ele>287.6</ele><time>2026-04-30T08:34:13.002Z</time></trkpt><trkpt lat="40.53357778399122" lon="9.700476517135803"><ele>286.4</ele><time>2026-04-30T08:34:14.002Z</time></trkpt><trkpt lat="40.53362593733872" lon="9.700361951700382"><ele>285.2</ele><time>2026-04-30T08:34:15.002Z</time></trkpt><trkpt lat="40.533682889798065" lon="9.700256216877174"><ele>284.0</ele><time>2026-04-30T08:34:16.002Z</time></trkpt><trkpt lat="40.53372876796697" lon="9.7001622206963"><ele>282.7142857142857</ele><time>2026-04-30T08:34:17.002Z</time></trkpt><trkpt lat="40.5337254702099" lon="9.700071999552037"><ele>281.4285714285714</ele><time>2026-04-30T08:34:19Z</time></trkpt><trkpt lat="40.53366635210404" lon="9.69999379060263"><ele>280.1428571428571</ele><time>2026-04-30T08:34:22Z</time></trkpt><trkpt lat="40.53359691019338" lon="9.69997324396475"><ele>278.85714285714283</ele><time>2026-04-30T08:34:34Z</time></trkpt><trkpt lat="40.533657925921545" lon="9.700009491000335"><ele>277.57142857142856</ele><time>2026-04-30T08:35:03.001Z</time></trkpt><trkpt lat="40.533733208363955" lon="9.700057273263896"><ele>276.2857142857143</ele><time>2026-04-30T08:35:06.001Z</time></trkpt><trkpt lat="40.53370350614115" lon="9.700131432043667"><ele>275.0</ele><time>2026-04-30T08:35:11.001Z</time></trkpt><trkpt lat="40.53369872765467" lon="9.700036218382351"><ele>275.0</ele><time>2026-04-30T08:35:21.001Z</time></trkpt><trkpt lat="40.53361750090845" lon="9.69998515632585"><ele>275.0</ele><time>2026-04-30T08:35:24.001Z</time></trkpt><trkpt lat="40.53353739295533" lon="9.700012459358208"><ele>275.0</ele><time>2026-04-30T08:35:26.001Z</time></trkpt><trkpt lat="40.53344046561459" lon="9.700062274550326"><ele>275.0</ele><time>2026-04-30T08:35:28.001Z</time></trkpt><trkpt lat="40.53332755657019" lon="9.700064353985196"><ele>275.0</ele><time>2026-04-30T08:35:30.001Z</time></trkpt><trkpt lat="40.53328079318595" lon="9.69999061936605"><ele>275.0</ele><time>2026-04-30T08:35:31.001Z</time></trkpt><trkpt lat="40.53321650302693" lon="9.699969772033215"><ele>275.0</ele><time>2026-04-30T08:35:32.001Z</time></trkpt><trkpt lat="40.53314271902502" lon="9.699979547980236"><ele>275.0</ele><time>2026-04-30T08:35:33.001Z</time></trkpt><trkpt lat="40.533087357427924" lon="9.699938415468706"><ele>275.0</ele><time>2026-04-30T08:35:34.001Z</time></trkpt><trkpt lat="40.53302229854307" lon="9.69990880667337"><ele>275.0</ele><time>2026-04-30T08:35:35.001Z</time></trkpt><trkpt lat="40.53297051646493" lon="9.699849226185934"><ele>275.0</ele><time>2026-04-30T08:35:36.001Z</time></trkpt><trkpt lat="40.53291938878963" lon="9.69978788479466"><ele>275.0</ele><time>2026-04-30T08:35:37.001Z</time></trkpt><trkpt lat="40.53287243353797" lon="9.699732591786988"><ele>273.2</ele><time>2026-04-30T08:35:38.001Z</time></trkpt><trkpt lat="40.53279049156964" lon="9.699667382146114"><ele>271.4</ele><time>2026-04-30T08:35:40.001Z</time></trkpt><trkpt lat="40.532690797901616" lon="9.699682555946264"><ele>269.6</ele><time>2026-04-30T08:35:42.001Z</time></trkpt><trkpt lat="40.53262802260321" lon="9.699712353709764"><ele>267.8</ele><time>2026-04-30T08:35:43.001Z</time></trkpt><trkpt lat="40.53256008102936" lon="9.699739097707958"><ele>266.0</ele><time>2026-04-30T08:35:44.001Z</time></trkpt><trkpt lat="40.53243045884384" lon="9.699727667720214"><ele>266.0</ele><time>2026-04-30T08:35:46.001Z</time></trkpt><trkpt lat="40.53238313672624" lon="9.699628137031992"><ele>266.0</ele><time>2026-04-30T08:35:49.001Z</time></trkpt><trkpt lat="40.53242896655055" lon="9.699554810734844"><ele>266.0</ele><time>2026-04-30T08:35:52.001Z</time></trkpt><trkpt lat="40.532519884574675" lon="9.699536603300633"><ele>266.0</ele><time>2026-04-30T08:35:54.001Z</time></trkpt><trkpt lat="40.53265991899724" lon="9.699479532791205"><ele>266.0</ele><time>2026-04-30T08:35:56.001Z</time></trkpt><trkpt lat="40.53273315226453" lon="9.699438165532474"><ele>266.5</ele><time>2026-04-30T08:35:57.001Z</time></trkpt><trkpt lat="40.53280447184154" lon="9.69940274517005"><ele>267.0</ele><time>2026-04-30T08:35:58.001Z</time></trkpt><trkpt lat="40.53288493285779" lon="9.699391796176934"><ele>267.5</ele><time>2026-04-30T08:35:59.001Z</time></trkpt><trkpt lat="40.53295392782852" lon="9.699372065016547"><ele>268.0</ele><time>2026-04-30T08:36:00.001Z</time></trkpt><trkpt lat="40.5330132648668" lon="9.699333946854273"><ele>268.5</ele><time>2026-04-30T08:36:01.001Z</time></trkpt><trkpt lat="40.53307676349694" lon="9.69921036317759"><ele>269.0</ele><time>2026-04-30T08:36:03.001Z</time></trkpt><trkpt lat="40.533099789518054" lon="9.699113798097974"><ele>269.0</ele><time>2026-04-30T08:36:04.001Z</time></trkpt><trkpt lat="40.53310713888528" lon="9.699004567891052"><ele>269.0</ele><time>2026-04-30T08:36:05.001Z</time></trkpt><trkpt lat="40.53311755608429" lon="9.698897161467524"><ele>269.0</ele><time>2026-04-30T08:36:06.002Z</time></trkpt><trkpt lat="40.53311368277223" lon="9.698765007755442"><ele>269.0</ele><time>2026-04-30T08:36:07.002Z</time></trkpt><trkpt lat="40.533120475947015" lon="9.698655816573188"><ele>269.0</ele><time>2026-04-30T08:36:08.002Z</time></trkpt><trkpt lat="40.533128542085606" lon="9.69855636167372"><ele>269.0</ele><time>2026-04-30T08:36:09.002Z</time></trkpt><trkpt lat="40.53314736506234" lon="9.698462190752"><ele>267.0</ele><time>2026-04-30T08:36:10.002Z</time></trkpt><trkpt lat="40.53317646470568" lon="9.69835999744314"><ele>265.0</ele><time>2026-04-30T08:36:11.002Z</time></trkpt><trkpt lat="40.53320515055337" lon="9.6982603041982"><ele>263.0</ele><time>2026-04-30T08:36:12.002Z</time></trkpt><trkpt lat="40.533223270097075" lon="9.698158570272321"><ele>261.0</ele><time>2026-04-30T08:36:13.002Z</time></trkpt><trkpt lat="40.53328016588897" lon="9.698062146335468"><ele>259.0</ele><time>2026-04-30T08:36:15.002Z</time></trkpt><trkpt lat="40.53338491092699" lon="9.697987602146416"><ele>259.0</ele><time>2026-04-30T08:36:17.002Z</time></trkpt><trkpt lat="40.5334574572362" lon="9.697877756813531"><ele>259.0</ele><time>2026-04-30T08:36:19.002Z</time></trkpt><trkpt lat="40.53347510478442" lon="9.697687503992194"><ele>259.0</ele><time>2026-04-30T08:36:21.002Z</time></trkpt><trkpt lat="40.5334971357933" lon="9.697599681674387"><ele>259.0</ele><time>2026-04-30T08:36:22.002Z</time></trkpt><trkpt lat="40.53354055921976" lon="9.697521843035776"><ele>259.0</ele><time>2026-04-30T08:36:23.002Z</time></trkpt><trkpt lat="40.53358211436566" lon="9.697433284478162"><ele>258.42857142857144</ele><time>2026-04-30T08:36:24.002Z</time></trkpt><trkpt lat="40.53361329795061" lon="9.697351295022271"><ele>257.8571428571429</ele><time>2026-04-30T08:36:25Z</time></trkpt><trkpt lat="40.533653594346944" lon="9.697275798542092"><ele>257.2857142857143</ele><time>2026-04-30T08:36:26Z</time></trkpt><trkpt lat="40.53370745464925" lon="9.697202545824414"><ele>256.7142857142857</ele><time>2026-04-30T08:36:27Z</time></trkpt><trkpt lat="40.53377289085703" lon="9.697151829669991"><ele>256.14285714285717</ele><time>2026-04-30T08:36:28Z</time></trkpt><trkpt lat="40.533839399722744" lon="9.697107955327954"><ele>255.57142857142858</ele><time>2026-04-30T08:36:29Z</time></trkpt><trkpt lat="40.53390764958452" lon="9.697080030851863"><ele>255.0</ele><time>2026-04-30T08:36:30Z</time></trkpt><trkpt lat="40.53397807063592" lon="9.697085312536617"><ele>255.0</ele><time>2026-04-30T08:36:31Z</time></trkpt><trkpt lat="40.53405905884193" lon="9.697106714598663"><ele>255.0</ele><time>2026-04-30T08:36:32Z</time></trkpt><trkpt lat="40.534132740001844" lon="9.697112460503442"><ele>255.0</ele><time>2026-04-30T08:36:33Z</time></trkpt><trkpt lat="40.5342332194068" lon="9.697029086484248"><ele>255.0</ele><time>2026-04-30T08:36:35Z</time></trkpt><trkpt lat="40.53426238816096" lon="9.696955543589471"><ele>255.0</ele><time>2026-04-30T08:36:36Z</time></trkpt><trkpt lat="40.534293577827" lon="9.696860636288967"><ele>255.0</ele><time>2026-04-30T08:36:37Z</time></trkpt><trkpt lat="40.53431880660759" lon="9.696772687224085"><ele>252.0</ele><time>2026-04-30T08:36:38Z</time></trkpt><trkpt lat="40.53435221532289" lon="9.696679339523858"><ele>249.0</ele><time>2026-04-30T08:36:39Z</time></trkpt><trkpt lat="40.53438795656486" lon="9.696594931635511"><ele>246.0</ele><time>2026-04-30T08:36:40Z</time></trkpt><trkpt lat="40.534416832177655" lon="9.696507410620706"><ele>243.0</ele><time>2026-04-30T08:36:41Z</time></trkpt><trkpt lat="40.534434751488774" lon="9.696418771143817"><ele>240.0</ele><time>2026-04-30T08:36:42Z</time></trkpt><trkpt lat="40.534451924341035" lon="9.696332288053897"><ele>237.0</ele><time>2026-04-30T08:36:43Z</time></trkpt><trkpt lat="40.53445028815513" lon="9.696174604434637"><ele>234.33333333333334</ele><time>2026-04-30T08:36:45Z</time></trkpt><trkpt lat="40.53441415693737" lon="9.696020814483125"><ele>231.66666666666669</ele><time>2026-04-30T08:36:47Z</time></trkpt><trkpt lat="40.53440373678335" lon="9.695937830973962"><ele>229.0</ele><time>2026-04-30T08:36:48Z</time></trkpt><trkpt lat="40.53441055385284" lon="9.695844765308815"><ele>226.33333333333334</ele><time>2026-04-30T08:36:49Z</time></trkpt><trkpt lat="40.53442653613309" lon="9.695750632119946"><ele>223.66666666666669</ele><time>2026-04-30T08:36:50Z</time></trkpt><trkpt lat="40.534445184651446" lon="9.69566568712592"><ele>221.0</ele><time>2026-04-30T08:36:51Z</time></trkpt><trkpt lat="40.53445888240958" lon="9.695576996549395"><ele>221.0</ele><time>2026-04-30T08:36:52Z</time></trkpt><trkpt lat="40.53447267918122" lon="9.695490540534111"><ele>221.00000000000003</ele><time>2026-04-30T08:36:53Z</time></trkpt><trkpt lat="40.53454154507816" lon="9.695361089581226"><ele>221.00000000000003</ele><time>2026-04-30T08:36:55Z</time></trkpt><trkpt lat="40.53459836752172" lon="9.695320794657231"><ele>221.0</ele><time>2026-04-30T08:36:56Z</time></trkpt><trkpt lat="40.53466798395433" lon="9.695288592168025"><ele>221.0</ele><time>2026-04-30T08:36:57Z</time></trkpt><trkpt lat="40.53478913862292" lon="9.695244584718033"><ele>222.00000000000003</ele><time>2026-04-30T08:36:59Z</time></trkpt><trkpt lat="40.53488023152454" lon="9.69512521735538"><ele>223.0</ele><time>2026-04-30T08:37:01Z</time></trkpt><trkpt lat="40.534911878722205" lon="9.695052836926514"><ele>224.0</ele><time>2026-04-30T08:37:02Z</time></trkpt><trkpt lat="40.534937748745094" lon="9.694977182143084"><ele>225.0</ele><time>2026-04-30T08:37:03Z</time></trkpt><trkpt lat="40.53495516282609" lon="9.694894154228573"><ele>226.00000000000003</ele><time>2026-04-30T08:37:04Z</time></trkpt><trkpt lat="40.53494392990541" lon="9.694739257184308"><ele>227.0</ele><time>2026-04-30T08:37:06Z</time></trkpt><trkpt lat="40.53493846925893" lon="9.694646777562088"><ele>227.00000000000003</ele><time>2026-04-30T08:37:07Z</time></trkpt><trkpt lat="40.53497549399033" lon="9.694519390059403"><ele>227.0</ele><time>2026-04-30T08:37:09Z</time></trkpt><trkpt lat="40.53506533508372" lon="9.694456980289864"><ele>227.0</ele><time>2026-04-30T08:37:11.001Z</time></trkpt><trkpt lat="40.535131465073846" lon="9.694426586577126"><ele>227.0</ele><time>2026-04-30T08:37:12.001Z</time></trkpt><trkpt lat="40.53520460838508" lon="9.6943923975382"><ele>227.00000000000003</ele><time>2026-04-30T08:37:13.001Z</time></trkpt><trkpt lat="40.5352616359627" lon="9.694337877320823"><ele>227.0</ele><time>2026-04-30T08:37:14.001Z</time></trkpt><trkpt lat="40.535309318252864" lon="9.694280830974089"><ele>225.66666666666669</ele><time>2026-04-30T08:37:15.001Z</time></trkpt><trkpt lat="40.53535847704394" lon="9.694207856883999"><ele>224.33333333333334</ele><time>2026-04-30T08:37:16.001Z</time></trkpt><trkpt lat="40.53539583948414" lon="9.69411920708561"><ele>223.0</ele><time>2026-04-30T08:37:17.001Z</time></trkpt><trkpt lat="40.53542055058269" lon="9.694041213623596"><ele>221.66666666666669</ele><time>2026-04-30T08:37:18.001Z</time></trkpt><trkpt lat="40.535471835276475" lon="9.69391621612607"><ele>220.33333333333334</ele><time>2026-04-30T08:37:20.001Z</time></trkpt><trkpt lat="40.535574064665" lon="9.693854391981024"><ele>219.0</ele><time>2026-04-30T08:37:22.001Z</time></trkpt><trkpt lat="40.53567246832601" lon="9.69384262257903"><ele>219.0</ele><time>2026-04-30T08:37:24.001Z</time></trkpt><trkpt lat="40.53571150729672" lon="9.6937567218471"><ele>219.0</ele><time>2026-04-30T08:37:26.001Z</time></trkpt><trkpt lat="40.5356958410527" lon="9.69361502332046"><ele>219.0</ele><time>2026-04-30T08:37:28.001Z</time></trkpt><trkpt lat="40.535663334117054" lon="9.693538314196253"><ele>219.0</ele><time>2026-04-30T08:37:29.001Z</time></trkpt><trkpt lat="40.535621694866485" lon="9.693454569774435"><ele>219.0</ele><time>2026-04-30T08:37:30.001Z</time></trkpt><trkpt lat="40.535562338162904" lon="9.693319031630871"><ele>219.0</ele><time>2026-04-30T08:37:32.001Z</time></trkpt><trkpt lat="40.5355455904054" lon="9.693164953116778"><ele>218.0</ele><time>2026-04-30T08:37:34.001Z</time></trkpt><trkpt lat="40.53554337965558" lon="9.693074004668247"><ele>217.0</ele><time>2026-04-30T08:37:35.001Z</time></trkpt><trkpt lat="40.53554309261423" lon="9.692984334334524"><ele>216.0</ele><time>2026-04-30T08:37:36.001Z</time></trkpt><trkpt lat="40.53555349200752" lon="9.69289605169123"><ele>215.0</ele><time>2026-04-30T08:37:37.001Z</time></trkpt><trkpt lat="40.53558127381533" lon="9.692816702129681"><ele>214.0</ele><time>2026-04-30T08:37:38.001Z</time></trkpt><trkpt lat="40.53561007244288" lon="9.692730737381462"><ele>213.0</ele><time>2026-04-30T08:37:39.001Z</time></trkpt><trkpt lat="40.535645948341205" lon="9.692655995545849"><ele>212.0</ele><time>2026-04-30T08:37:40.001Z</time></trkpt><trkpt lat="40.53568349868248" lon="9.692581995697196"><ele>209.39999999999998</ele><time>2026-04-30T08:37:41.001Z</time></trkpt><trkpt lat="40.535711198603344" lon="9.692492289355082"><ele>206.79999999999998</ele><time>2026-04-30T08:37:42.001Z</time></trkpt><trkpt lat="40.5357787776334" lon="9.692361023601096"><ele>204.2</ele><time>2026-04-30T08:37:44.001Z</time></trkpt><trkpt lat="40.535871861255714" lon="9.692309999671107"><ele>201.6</ele><time>2026-04-30T08:37:46.001Z</time></trkpt><trkpt lat="40.53600658497368" lon="9.692288276540534"><ele>199.0</ele><time>2026-04-30T08:37:48.001Z</time></trkpt><trkpt lat="40.53608966961103" lon="9.692275158621689"><ele>198.99999999999997</ele><time>2026-04-30T08:37:49.001Z</time></trkpt><trkpt lat="40.53615564646086" lon="9.692273426105203"><ele>199.0</ele><time>2026-04-30T08:37:50.001Z</time></trkpt><trkpt lat="40.5362156267404" lon="9.692305100477865"><ele>199.0</ele><time>2026-04-30T08:37:51.001Z</time></trkpt><trkpt lat="40.536276124532826" lon="9.69234836122462"><ele>199.0</ele><time>2026-04-30T08:37:52.001Z</time></trkpt><trkpt lat="40.53634816974208" lon="9.692402270799723"><ele>199.0</ele><time>2026-04-30T08:37:53.001Z</time></trkpt><trkpt lat="40.53642355036371" lon="9.692425718396946"><ele>198.99999999999997</ele><time>2026-04-30T08:37:54.001Z</time></trkpt><trkpt lat="40.536502209239366" lon="9.692446574949074"><ele>199.0</ele><time>2026-04-30T08:37:55.001Z</time></trkpt><trkpt lat="40.53659056304385" lon="9.692468800503361"><ele>199.85714285714283</ele><time>2026-04-30T08:37:56.001Z</time></trkpt><trkpt lat="40.536675964610616" lon="9.692514308197408"><ele>200.71428571428572</ele><time>2026-04-30T08:37:57.001Z</time></trkpt><trkpt lat="40.53673166870915" lon="9.692569381373517"><ele>201.57142857142856</ele><time>2026-04-30T08:37:58.001Z</time></trkpt><trkpt lat="40.53678552744546" lon="9.69263849719222"><ele>202.42857142857142</ele><time>2026-04-30T08:37:59.001Z</time></trkpt><trkpt lat="40.53680991047348" lon="9.692723102515972"><ele>203.28571428571428</ele><time>2026-04-30T08:38:00.001Z</time></trkpt><trkpt lat="40.53684661348831" lon="9.692794414726594"><ele>204.14285714285714</ele><time>2026-04-30T08:38:01.001Z</time></trkpt><trkpt lat="40.536901766644405" lon="9.69283939243918"><ele>205.0</ele><time>2026-04-30T08:38:02.001Z</time></trkpt><trkpt lat="40.536974564392686" lon="9.692881912490698"><ele>203.16666666666666</ele><time>2026-04-30T08:38:03.001Z</time></trkpt><trkpt lat="40.53707233544939" lon="9.692933838687672"><ele>201.33333333333331</ele><time>2026-04-30T08:38:04.001Z</time></trkpt><trkpt lat="40.53714684764887" lon="9.692980292270342"><ele>199.5</ele><time>2026-04-30T08:38:05.001Z</time></trkpt><trkpt lat="40.53721931048034" lon="9.693009885976336"><ele>197.66666666666669</ele><time>2026-04-30T08:38:06.001Z</time></trkpt><trkpt lat="40.537301790645046" lon="9.692987234334181"><ele>195.83333333333334</ele><time>2026-04-30T08:38:08.001Z</time></trkpt><trkpt lat="40.53736196750726" lon="9.69293196086853"><ele>194.0</ele><time>2026-04-30T08:38:09.001Z</time></trkpt><trkpt lat="40.5374253874425" lon="9.692856866027707"><ele>194.00000000000003</ele><time>2026-04-30T08:38:10.001Z</time></trkpt><trkpt lat="40.53749201499181" lon="9.69280265527182"><ele>194.0</ele><time>2026-04-30T08:38:11.001Z</time></trkpt><trkpt lat="40.53755761996331" lon="9.69277174048791"><ele>194.0</ele><time>2026-04-30T08:38:12.001Z</time></trkpt><trkpt lat="40.53763584620205" lon="9.692748997146944"><ele>194.0</ele><time>2026-04-30T08:38:13.001Z</time></trkpt><trkpt lat="40.53772858381081" lon="9.692730496340232"><ele>194.00000000000003</ele><time>2026-04-30T08:38:14.001Z</time></trkpt><trkpt lat="40.537806581627464" lon="9.69270928414435"><ele>194.0</ele><time>2026-04-30T08:38:15.001Z</time></trkpt><trkpt lat="40.53789835317762" lon="9.692641236334255"><ele>190.2</ele><time>2026-04-30T08:38:17.001Z</time></trkpt><trkpt lat="40.53796688100733" lon="9.692473831791713"><ele>186.39999999999998</ele><time>2026-04-30T08:38:19.002Z</time></trkpt><trkpt lat="40.53800140332978" lon="9.692379238141127"><ele>182.6</ele><time>2026-04-30T08:38:20.002Z</time></trkpt><trkpt lat="40.538049632864706" lon="9.692297578982716"><ele>178.8</ele><time>2026-04-30T08:38:21.002Z</time></trkpt><trkpt lat="40.538135141773274" lon="9.692165660812858"><ele>175.0</ele><time>2026-04-30T08:38:23.002Z</time></trkpt><trkpt lat="40.53823760819175" lon="9.692126476404649"><ele>175.0</ele><time>2026-04-30T08:38:25.002Z</time></trkpt><trkpt lat="40.538342251506336" lon="9.692186758626162"><ele>175.0</ele><time>2026-04-30T08:38:27.002Z</time></trkpt><trkpt lat="40.53840082620644" lon="9.692244801194718"><ele>175.0</ele><time>2026-04-30T08:38:28.002Z</time></trkpt><trkpt lat="40.53845953995139" lon="9.692314905633285"><ele>175.0</ele><time>2026-04-30T08:38:29.002Z</time></trkpt><trkpt lat="40.538528278700674" lon="9.692398113758376"><ele>175.0</ele><time>2026-04-30T08:38:30Z</time></trkpt><trkpt lat="40.53860782981592" lon="9.692489661226759"><ele>175.0</ele><time>2026-04-30T08:38:31Z</time></trkpt><trkpt lat="40.53867970049734" lon="9.69257259229997"><ele>175.0</ele><time>2026-04-30T08:38:32Z</time></trkpt><trkpt lat="40.53875409177747" lon="9.692643193691183"><ele>175.0</ele><time>2026-04-30T08:38:33Z</time></trkpt><trkpt lat="40.53882650570753" lon="9.692689702656558"><ele>175.0</ele><time>2026-04-30T08:38:34Z</time></trkpt><trkpt lat="40.5389022664955" lon="9.692713356553515"><ele>175.0</ele><time>2026-04-30T08:38:35Z</time></trkpt><trkpt lat="40.53896417482019" lon="9.692697015515694"><ele>175.0</ele><time>2026-04-30T08:38:36Z</time></trkpt><trkpt lat="40.53904183416868" lon="9.692669476171211"><ele>172.5</ele><time>2026-04-30T08:38:37Z</time></trkpt><trkpt lat="40.53911866885624" lon="9.6926410819329"><ele>170.0</ele><time>2026-04-30T08:38:38Z</time></trkpt><trkpt lat="40.53923371268861" lon="9.692696044660073"><ele>167.5</ele><time>2026-04-30T08:38:40Z</time></trkpt><trkpt lat="40.539301354662676" lon="9.692775535213693"><ele>165.0</ele><time>2026-04-30T08:38:42Z</time></trkpt><trkpt lat="40.53924401075068" lon="9.692815645785126"><ele>162.5</ele><time>2026-04-30T08:38:58.001Z</time></trkpt><trkpt lat="40.53917946035583" lon="9.69283644955596"><ele>160.0</ele><time>2026-04-30T08:39:00.001Z</time></trkpt><trkpt lat="40.53918507542233" lon="9.692926973855311"><ele>160.0</ele><time>2026-04-30T08:39:02.001Z</time></trkpt><trkpt lat="40.53923477081815" lon="9.692987726562228"><ele>160.0</ele><time>2026-04-30T08:39:04.001Z</time></trkpt><trkpt lat="40.539313757115295" lon="9.69302992341348"><ele>160.0</ele><time>2026-04-30T08:39:06.001Z</time></trkpt><trkpt lat="40.53943109371092" lon="9.693093673883311"><ele>160.0</ele><time>2026-04-30T08:39:08.001Z</time></trkpt><trkpt lat="40.53949923544221" lon="9.693123868903799"><ele>160.0</ele><time>2026-04-30T08:39:09.001Z</time></trkpt><trkpt lat="40.53960819170768" lon="9.693035638144611"><ele>159.83333333333334</ele><time>2026-04-30T08:39:10.001Z</time></trkpt><trkpt lat="40.539671921715" lon="9.693052835810155"><ele>159.66666666666669</ele><time>2026-04-30T08:39:11.001Z</time></trkpt><trkpt lat="40.539716170039945" lon="9.693216166686016"><ele>159.5</ele><time>2026-04-30T08:39:12.001Z</time></trkpt><trkpt lat="40.53978762590611" lon="9.69324320698046"><ele>159.33333333333334</ele><time>2026-04-30T08:39:13.001Z</time></trkpt><trkpt lat="40.53985544105348" lon="9.693272816710662"><ele>159.16666666666666</ele><time>2026-04-30T08:39:14.001Z</time></trkpt><trkpt lat="40.53993497494746" lon="9.69330354227341"><ele>159.0</ele><time>2026-04-30T08:39:15.001Z</time></trkpt><trkpt lat="40.53999950336905" lon="9.693341315006172"><ele>159.0</ele><time>2026-04-30T08:39:16.001Z</time></trkpt><trkpt lat="40.540059704523166" lon="9.693376349434928"><ele>159.0</ele><time>2026-04-30T08:39:17.001Z</time></trkpt><trkpt lat="40.54011694520092" lon="9.693415332728494"><ele>159.0</ele><time>2026-04-30T08:39:18.001Z</time></trkpt><trkpt lat="40.540179273590304" lon="9.693428143764335"><ele>159.0</ele><time>2026-04-30T08:39:19.001Z</time></trkpt><trkpt lat="40.54029734605545" lon="9.693400712824285"><ele>159.0</ele><time>2026-04-30T08:39:21.001Z</time></trkpt><trkpt lat="40.540409266076104" lon="9.693310337798396"><ele>159.0</ele><time>2026-04-30T08:39:23.001Z</time></trkpt><trkpt lat="40.54046602587381" lon="9.69326145904946"><ele>161.0</ele><time>2026-04-30T08:39:24.001Z</time></trkpt><trkpt lat="40.540523457325776" lon="9.693209703959182"><ele>163.0</ele><time>2026-04-30T08:39:25.001Z</time></trkpt><trkpt lat="40.54059009546777" lon="9.693141401249031"><ele>165.0</ele><time>2026-04-30T08:39:26.001Z</time></trkpt><trkpt lat="40.540656185646384" lon="9.693076280033669"><ele>167.0</ele><time>2026-04-30T08:39:27.001Z</time></trkpt><trkpt lat="40.54071750997986" lon="9.693021174864208"><ele>169.0</ele><time>2026-04-30T08:39:28.001Z</time></trkpt><trkpt lat="40.54077851739278" lon="9.692987077583894"><ele>171.0</ele><time>2026-04-30T08:39:29.001Z</time></trkpt><trkpt lat="40.540888139267985" lon="9.69297471939396"><ele>171.0</ele><time>2026-04-30T08:39:31.001Z</time></trkpt><trkpt lat="40.54099989135659" lon="9.693017426592547"><ele>171.0</ele><time>2026-04-30T08:39:33.001Z</time></trkpt><trkpt lat="40.54106559100154" lon="9.693037021618384"><ele>171.0</ele><time>2026-04-30T08:39:34.001Z</time></trkpt><trkpt lat="40.54114655811046" lon="9.69304223723291"><ele>171.0</ele><time>2026-04-30T08:39:35.001Z</time></trkpt><trkpt lat="40.54121969853851" lon="9.693063684374811"><ele>171.0</ele><time>2026-04-30T08:39:36.001Z</time></trkpt><trkpt lat="40.54130431660153" lon="9.693098610390138"><ele>171.0</ele><time>2026-04-30T08:39:37.001Z</time></trkpt><trkpt lat="40.54137617509975" lon="9.693120306513293"><ele>170.60000000000002</ele><time>2026-04-30T08:39:38.001Z</time></trkpt><trkpt lat="40.54150653343748" lon="9.693187096156406"><ele>170.2</ele><time>2026-04-30T08:39:40.001Z</time></trkpt><trkpt lat="40.54157166452251" lon="9.69321362767953"><ele>169.8</ele><time>2026-04-30T08:39:41.001Z</time></trkpt><trkpt lat="40.54165445480678" lon="9.693234331365176"><ele>169.39999999999998</ele><time>2026-04-30T08:39:42.001Z</time></trkpt><trkpt lat="40.541736807911015" lon="9.693248132062806"><ele>169.0</ele><time>2026-04-30T08:39:43.001Z</time></trkpt><trkpt lat="40.541813712886174" lon="9.69327043062865"><ele>169.0</ele><time>2026-04-30T08:39:44.001Z</time></trkpt><trkpt lat="40.54188638187752" lon="9.693285986178276"><ele>169.0</ele><time>2026-04-30T08:39:45.001Z</time></trkpt><trkpt lat="40.54201117251122" lon="9.693338876405631"><ele>169.0</ele><time>2026-04-30T08:39:47.001Z</time></trkpt><trkpt lat="40.54208467415973" lon="9.69336118755378"><ele>169.0</ele><time>2026-04-30T08:39:48.001Z</time></trkpt><trkpt lat="40.542158333845826" lon="9.693392762926429"><ele>169.0</ele><time>2026-04-30T08:39:49.001Z</time></trkpt><trkpt lat="40.542271589192794" lon="9.693418536874203"><ele>167.0</ele><time>2026-04-30T08:39:51.001Z</time></trkpt><trkpt lat="40.54237414721346" lon="9.693444400503466"><ele>165.0</ele><time>2026-04-30T08:39:53.001Z</time></trkpt><trkpt lat="40.542457539542916" lon="9.693471644983681"><ele>163.0</ele><time>2026-04-30T08:39:55.001Z</time></trkpt><trkpt lat="40.54254833717612" lon="9.69345981377739"><ele>161.0</ele><time>2026-04-30T08:39:57.001Z</time></trkpt><trkpt lat="40.54262736476484" lon="9.693411495983415"><ele>159.0</ele><time>2026-04-30T08:39:59.002Z</time></trkpt><trkpt lat="40.54271051937243" lon="9.693315527309885"><ele>159.0</ele><time>2026-04-30T08:40:01.002Z</time></trkpt><trkpt lat="40.54279544875059" lon="9.69323872108275"><ele>159.0</ele><time>2026-04-30T08:40:03.002Z</time></trkpt><trkpt lat="40.5428726905226" lon="9.693194061163876"><ele>159.0</ele><time>2026-04-30T08:40:05.002Z</time></trkpt><trkpt lat="40.542941202204446" lon="9.693206238495359"><ele>159.0</ele><time>2026-04-30T08:40:08.002Z</time></trkpt><trkpt lat="40.54300498899459" lon="9.693260042846289"><ele>159.0</ele><time>2026-04-30T08:40:10.002Z</time></trkpt><trkpt lat="40.543094070555824" lon="9.693294659500681"><ele>159.0</ele><time>2026-04-30T08:40:12.002Z</time></trkpt><trkpt lat="40.543185962462715" lon="9.693324417204245"><ele>156.6</ele><time>2026-04-30T08:40:14.002Z</time></trkpt><trkpt lat="40.54328105705254" lon="9.693341625427486"><ele>154.2</ele><time>2026-04-30T08:40:16.002Z</time></trkpt><trkpt lat="40.54336542313425" lon="9.693384829916981"><ele>151.79999999999998</ele><time>2026-04-30T08:40:18.002Z</time></trkpt><trkpt lat="40.543448195876735" lon="9.693451869839963"><ele>149.4</ele><time>2026-04-30T08:40:20.002Z</time></trkpt><trkpt lat="40.54354594999595" lon="9.693526519973997"><ele>147.0</ele><time>2026-04-30T08:40:22.002Z</time></trkpt><trkpt lat="40.54361840724279" lon="9.693596631885063"><ele>145.83333333333334</ele><time>2026-04-30T08:40:24.002Z</time></trkpt><trkpt lat="40.54368576649629" lon="9.693664557759849"><ele>144.66666666666666</ele><time>2026-04-30T08:40:26.002Z</time></trkpt><trkpt lat="40.5437424423232" lon="9.693723510705258"><ele>143.5</ele><time>2026-04-30T08:40:28.002Z</time></trkpt><trkpt lat="40.54382288459109" lon="9.69369861950845"><ele>142.33333333333331</ele><time>2026-04-30T08:40:31.002Z</time></trkpt><trkpt lat="40.54387548677226" lon="9.693635556165948"><ele>141.16666666666666</ele><time>2026-04-30T08:40:33.002Z</time></trkpt><trkpt lat="40.543937113312396" lon="9.693539026266054"><ele>140.0</ele><time>2026-04-30T08:40:35.002Z</time></trkpt><trkpt lat="40.54401544590315" lon="9.693452361701297"><ele>139.33333333333331</ele><time>2026-04-30T08:40:37Z</time></trkpt><trkpt lat="40.54407651111278" lon="9.693417955825321"><ele>138.66666666666666</ele><time>2026-04-30T08:40:39Z</time></trkpt><trkpt lat="40.54414031934668" lon="9.693406064276344"><ele>138.0</ele><time>2026-04-30T08:40:41Z</time></trkpt><trkpt lat="40.544211546655276" lon="9.69341760913075"><ele>137.33333333333334</ele><time>2026-04-30T08:40:43Z</time></trkpt><trkpt lat="40.544294420340364" lon="9.693402125218869"><ele>136.66666666666669</ele><time>2026-04-30T08:40:45Z</time></trkpt><trkpt lat="40.54437499011578" lon="9.693407091424417"><ele>136.0</ele><time>2026-04-30T08:40:47Z</time></trkpt><trkpt lat="40.544474187888504" lon="9.693398045834801"><ele>133.0</ele><time>2026-04-30T08:40:49Z</time></trkpt><trkpt lat="40.54459112032958" lon="9.693401858405416"><ele>130.0</ele><time>2026-04-30T08:40:51Z</time></trkpt><trkpt lat="40.544696678812564" lon="9.693401029180816"><ele>127.0</ele><time>2026-04-30T08:40:53Z</time></trkpt><trkpt lat="40.54479526421297" lon="9.693428706584168"><ele>124.0</ele><time>2026-04-30T08:40:55Z</time></trkpt><trkpt lat="40.544889160418876" lon="9.693463931047438"><ele>121.0</ele><time>2026-04-30T08:40:57Z</time></trkpt><trkpt lat="40.545009576955806" lon="9.693503185530016"><ele>121.00000000000001</ele><time>2026-04-30T08:40:59Z</time></trkpt><trkpt lat="40.54510703141408" lon="9.693543830832269"><ele>121.0</ele><time>2026-04-30T08:41:01Z</time></trkpt><trkpt lat="40.5451883893178" lon="9.693570592466955"><ele>121.0</ele><time>2026-04-30T08:41:03Z</time></trkpt><trkpt lat="40.545255931031406" lon="9.6935679360393"><ele>121.0</ele><time>2026-04-30T08:41:05Z</time></trkpt><trkpt lat="40.54533513412531" lon="9.693595396109478"><ele>121.00000000000001</ele><time>2026-04-30T08:41:08.001Z</time></trkpt><trkpt lat="40.54540759009623" lon="9.693661410518969"><ele>121.0</ele><time>2026-04-30T08:41:12.001Z</time></trkpt><trkpt lat="40.54548886859931" lon="9.69371787261735"><ele>117.00000000000001</ele><time>2026-04-30T08:41:14.001Z</time></trkpt><trkpt lat="40.545577624392145" lon="9.693753744711293"><ele>113.0</ele><time>2026-04-30T08:41:17.001Z</time></trkpt><trkpt lat="40.54564332978986" lon="9.693769273602117"><ele>109.0</ele><time>2026-04-30T08:41:19.001Z</time></trkpt><trkpt lat="40.54572937695905" lon="9.693800213678845"><ele>105.0</ele><time>2026-04-30T08:41:22.001Z</time></trkpt><trkpt lat="40.545789653360565" lon="9.69384912348246"><ele>101.00000000000001</ele><time>2026-04-30T08:41:24.001Z</time></trkpt><trkpt lat="40.545867337287845" lon="9.69396413840785"><ele>97.0</ele><time>2026-04-30T08:41:26.001Z</time></trkpt><trkpt lat="40.54590224064411" lon="9.694033980014837"><ele>97.00000000000001</ele><time>2026-04-30T08:41:27.001Z</time></trkpt><trkpt lat="40.545931993723244" lon="9.69410747176997"><ele>97.0</ele><time>2026-04-30T08:41:28.001Z</time></trkpt><trkpt lat="40.54595254661413" lon="9.694189942770405"><ele>97.0</ele><time>2026-04-30T08:41:29.001Z</time></trkpt><trkpt lat="40.54597865831114" lon="9.694279990971133"><ele>97.0</ele><time>2026-04-30T08:41:30.001Z</time></trkpt><trkpt lat="40.546003301220956" lon="9.694367596900962"><ele>97.00000000000001</ele><time>2026-04-30T08:41:31.001Z</time></trkpt><trkpt lat="40.546063866246826" lon="9.69449679834495"><ele>97.0</ele><time>2026-04-30T08:41:33.001Z</time></trkpt><trkpt lat="40.54611133942258" lon="9.694575093181713"><ele>96.50000000000001</ele><time>2026-04-30T08:41:34.001Z</time></trkpt><trkpt lat="40.54616727170185" lon="9.694653897322297"><ele>96.0</ele><time>2026-04-30T08:41:35.001Z</time></trkpt><trkpt lat="40.54623900959575" lon="9.69472499022708"><ele>95.5</ele><time>2026-04-30T08:41:36.001Z</time></trkpt><trkpt lat="40.54630878528228" lon="9.694781100161833"><ele>95.0</ele><time>2026-04-30T08:41:37.001Z</time></trkpt><trkpt lat="40.5463901087622" lon="9.694845447916123"><ele>94.5</ele><time>2026-04-30T08:41:38.001Z</time></trkpt><trkpt lat="40.54647233602558" lon="9.694898692129664"><ele>94.0</ele><time>2026-04-30T08:41:39.001Z</time></trkpt><trkpt lat="40.546560084759406" lon="9.694931870742238"><ele>94.0</ele><time>2026-04-30T08:41:40.001Z</time></trkpt><trkpt lat="40.54665401666433" lon="9.694961404121933"><ele>94.0</ele><time>2026-04-30T08:41:41.001Z</time></trkpt><trkpt lat="40.54673377038489" lon="9.694984243549161"><ele>94.0</ele><time>2026-04-30T08:41:42.001Z</time></trkpt><trkpt lat="40.54683963880252" lon="9.695012126200064"><ele>94.0</ele><time>2026-04-30T08:41:44.001Z</time></trkpt><trkpt lat="40.54692227207949" lon="9.695006451693335"><ele>94.0</ele><time>2026-04-30T08:41:46.001Z</time></trkpt><trkpt lat="40.54701130263073" lon="9.69496144631959"><ele>92.6</ele><time>2026-04-30T08:41:48.001Z</time></trkpt><trkpt lat="40.54715061069331" lon="9.694908612223056"><ele>91.2</ele><time>2026-04-30T08:41:50.001Z</time></trkpt><trkpt lat="40.54723707223416" lon="9.694883528691118"><ele>89.8</ele><time>2026-04-30T08:41:51.001Z</time></trkpt><trkpt lat="40.547314869846126" lon="9.694858065158536"><ele>88.39999999999999</ele><time>2026-04-30T08:41:52.001Z</time></trkpt><trkpt lat="40.547385192310124" lon="9.694845327130535"><ele>87.0</ele><time>2026-04-30T08:41:53.001Z</time></trkpt><trkpt lat="40.54745414527977" lon="9.694831967528568"><ele>87.0</ele><time>2026-04-30T08:41:54.001Z</time></trkpt><trkpt lat="40.547525841312925" lon="9.694809913434833"><ele>87.0</ele><time>2026-04-30T08:41:55.001Z</time></trkpt><trkpt lat="40.54759767708095" lon="9.694795380699809"><ele>87.0</ele><time>2026-04-30T08:41:56.001Z</time></trkpt><trkpt lat="40.54772046546994" lon="9.694765670815231"><ele>87.0</ele><time>2026-04-30T08:41:58.001Z</time></trkpt><trkpt lat="40.54778720647901" lon="9.694781525745366"><ele>87.0</ele><time>2026-04-30T08:41:59.001Z</time></trkpt><trkpt lat="40.547884504769996" lon="9.694801808427192"><ele>87.0</ele><time>2026-04-30T08:42:00.001Z</time></trkpt><trkpt lat="40.547989341902685" lon="9.694823740213742"><ele>84.8</ele><time>2026-04-30T08:42:01.001Z</time></trkpt><trkpt lat="40.548094068392714" lon="9.694840217957239"><ele>82.6</ele><time>2026-04-30T08:42:02.001Z</time></trkpt><trkpt lat="40.548192533503084" lon="9.694859363859516"><ele>80.39999999999999</ele><time>2026-04-30T08:42:03.001Z</time></trkpt><trkpt lat="40.54829029666034" lon="9.694873425162303"><ele>78.19999999999999</ele><time>2026-04-30T08:42:04.001Z</time></trkpt><trkpt lat="40.5483937548686" lon="9.694879150154462"><ele>76.0</ele><time>2026-04-30T08:42:05.001Z</time></trkpt><trkpt lat="40.54850151567123" lon="9.694884264812469"><ele>76.0</ele><time>2026-04-30T08:42:06.001Z</time></trkpt><trkpt lat="40.54858120255006" lon="9.694897917612767"><ele>76.0</ele><time>2026-04-30T08:42:07.001Z</time></trkpt><trkpt lat="40.548651381705255" lon="9.694903928098492"><ele>76.0</ele><time>2026-04-30T08:42:08.001Z</time></trkpt><trkpt lat="40.548719031802676" lon="9.69492398755074"><ele>76.0</ele><time>2026-04-30T08:42:09.001Z</time></trkpt><trkpt lat="40.548799739044696" lon="9.694942167086964"><ele>76.0</ele><time>2026-04-30T08:42:10.001Z</time></trkpt><trkpt lat="40.54888514896033" lon="9.694962322344638"><ele>76.0</ele><time>2026-04-30T08:42:11.002Z</time></trkpt><trkpt lat="40.54901060385869" lon="9.694955115079674"><ele>74.71428571428571</ele><time>2026-04-30T08:42:13.002Z</time></trkpt><trkpt lat="40.549073677434954" lon="9.694930421602368"><ele>73.42857142857143</ele><time>2026-04-30T08:42:14.002Z</time></trkpt><trkpt lat="40.54913349902528" lon="9.694896655060193"><ele>72.14285714285714</ele><time>2026-04-30T08:42:15.002Z</time></trkpt><trkpt lat="40.54919733928833" lon="9.69484835117195"><ele>70.85714285714286</ele><time>2026-04-30T08:42:16.002Z</time></trkpt><trkpt lat="40.549249373302175" lon="9.694790968339458"><ele>69.57142857142857</ele><time>2026-04-30T08:42:17.002Z</time></trkpt><trkpt lat="40.54930529503243" lon="9.694736676260286"><ele>68.28571428571429</ele><time>2026-04-30T08:42:18.002Z</time></trkpt><trkpt lat="40.54936755102595" lon="9.694690042219188"><ele>67.0</ele><time>2026-04-30T08:42:19.002Z</time></trkpt><trkpt lat="40.549430029930534" lon="9.694648704066395"><ele>67.0</ele><time>2026-04-30T08:42:20.002Z</time></trkpt><trkpt lat="40.54949818489723" lon="9.694617135821092"><ele>67.0</ele><time>2026-04-30T08:42:21.002Z</time></trkpt><trkpt lat="40.54956404007102" lon="9.694583221887608"><ele>67.0</ele><time>2026-04-30T08:42:22.002Z</time></trkpt><trkpt lat="40.549645785624" lon="9.694562567909298"><ele>67.0</ele><time>2026-04-30T08:42:23.002Z</time></trkpt><trkpt lat="40.549725868050444" lon="9.69453055759812"><ele>67.0</ele><time>2026-04-30T08:42:24.002Z</time></trkpt><trkpt lat="40.54979936458246" lon="9.694501468660341"><ele>67.0</ele><time>2026-04-30T08:42:25.002Z</time></trkpt><trkpt lat="40.54987782046422" lon="9.6944649331252"><ele>65.28571428571429</ele><time>2026-04-30T08:42:26.002Z</time></trkpt><trkpt lat="40.54994979184137" lon="9.694434642540855"><ele>63.57142857142857</ele><time>2026-04-30T08:42:27.002Z</time></trkpt><trkpt lat="40.55002497639792" lon="9.69443734698322"><ele>61.857142857142854</ele><time>2026-04-30T08:42:28.002Z</time></trkpt><trkpt lat="40.550101458704894" lon="9.694455508760912"><ele>60.14285714285714</ele><time>2026-04-30T08:42:29.002Z</time></trkpt><trkpt lat="40.550173790292554" lon="9.694460951185"><ele>58.42857142857143</ele><time>2026-04-30T08:42:30.002Z</time></trkpt><trkpt lat="40.550238850806736" lon="9.69446615550008"><ele>56.71428571428571</ele><time>2026-04-30T08:42:31.002Z</time></trkpt><trkpt lat="40.55030746219049" lon="9.694450789172075"><ele>55.0</ele><time>2026-04-30T08:42:32.002Z</time></trkpt><trkpt lat="40.55037465999074" lon="9.694434541505025"><ele>54.2</ele><time>2026-04-30T08:42:33.002Z</time></trkpt><trkpt lat="40.550513472401384" lon="9.694379364243572"><ele>53.4</ele><time>2026-04-30T08:42:35.002Z</time></trkpt><trkpt lat="40.55060603780605" lon="9.69434588231649"><ele>52.599999999999994</ele><time>2026-04-30T08:42:36.002Z</time></trkpt><trkpt lat="40.55070835084472" lon="9.69430619204315"><ele>51.8</ele><time>2026-04-30T08:42:37.002Z</time></trkpt><trkpt lat="40.55080591734059" lon="9.694273723095453"><ele>51.0</ele><time>2026-04-30T08:42:38.002Z</time></trkpt><trkpt lat="40.55091264257057" lon="9.694237014824205"><ele>51.0</ele><time>2026-04-30T08:42:39.002Z</time></trkpt><trkpt lat="40.55102955070881" lon="9.694194570735622"><ele>51.0</ele><time>2026-04-30T08:42:40.002Z</time></trkpt><trkpt lat="40.55116489308424" lon="9.694157332509677"><ele>51.0</ele><time>2026-04-30T08:42:41.002Z</time></trkpt><trkpt lat="40.5512847883365" lon="9.694110706054555"><ele>51.0</ele><time>2026-04-30T08:42:42Z</time></trkpt><trkpt lat="40.551384898203246" lon="9.694067393711775"><ele>50.0</ele><time>2026-04-30T08:42:43Z</time></trkpt><trkpt lat="40.55148346613318" lon="9.694033005592566"><ele>49.0</ele><time>2026-04-30T08:42:44Z</time></trkpt><trkpt lat="40.551593011116836" lon="9.69398214598669"><ele>48.0</ele><time>2026-04-30T08:42:45Z</time></trkpt><trkpt lat="40.55169130684745" lon="9.69392862009017"><ele>47.0</ele><time>2026-04-30T08:42:46Z</time></trkpt><trkpt lat="40.55177469883242" lon="9.693886020342172"><ele>46.0</ele><time>2026-04-30T08:42:47Z</time></trkpt><trkpt lat="40.55186460777757" lon="9.693845212130322"><ele>46.0</ele><time>2026-04-30T08:42:49Z</time></trkpt><trkpt lat="40.5519408854083" lon="9.69380128090651"><ele>46.0</ele><time>2026-04-30T08:42:52Z</time></trkpt><trkpt lat="40.55202893909128" lon="9.693747238950854"><ele>46.0</ele><time>2026-04-30T08:42:55Z</time></trkpt><trkpt lat="40.552138250637775" lon="9.693660674616382"><ele>46.0</ele><time>2026-04-30T08:42:57Z</time></trkpt><trkpt lat="40.55221037610329" lon="9.693633417937617"><ele>46.0</ele><time>2026-04-30T08:42:58Z</time></trkpt><trkpt lat="40.552281711997246" lon="9.693615574663395"><ele>44.8</ele><time>2026-04-30T08:42:59Z</time></trkpt><trkpt lat="40.55235762954967" lon="9.693611531436558"><ele>43.599999999999994</ele><time>2026-04-30T08:43:00Z</time></trkpt><trkpt lat="40.55244483190879" lon="9.693622027287942"><ele>42.4</ele><time>2026-04-30T08:43:01Z</time></trkpt><trkpt lat="40.55254634611723" lon="9.693631672069833"><ele>41.2</ele><time>2026-04-30T08:43:02Z</time></trkpt><trkpt lat="40.55265832718898" lon="9.693630443331752"><ele>40.0</ele><time>2026-04-30T08:43:03Z</time></trkpt><trkpt lat="40.55275403485981" lon="9.693637295812987"><ele>40.0</ele><time>2026-04-30T08:43:04Z</time></trkpt><trkpt lat="40.55283830472657" lon="9.69364617931049"><ele>40.0</ele><time>2026-04-30T08:43:05Z</time></trkpt><trkpt lat="40.55291042819993" lon="9.693662328206967"><ele>40.0</ele><time>2026-04-30T08:43:06Z</time></trkpt><trkpt lat="40.55297376649378" lon="9.693686718074982"><ele>40.0</ele><time>2026-04-30T08:43:07Z</time></trkpt><trkpt lat="40.55304280282072" lon="9.693682539272704"><ele>40.0</ele><time>2026-04-30T08:43:09Z</time></trkpt><trkpt lat="40.553111639359706" lon="9.693644102260349"><ele>40.0</ele><time>2026-04-30T08:43:51.001Z</time></trkpt><trkpt lat="40.55315807729034" lon="9.693582505773199"><ele>40.0</ele><time>2026-04-30T08:43:53.001Z</time></trkpt><trkpt lat="40.553221391045696" lon="9.693539265049148"><ele>39.833333333333336</ele><time>2026-04-30T08:43:56.001Z</time></trkpt><trkpt lat="40.553277473418255" lon="9.693648962876294"><ele>39.66666666666667</ele><time>2026-04-30T08:44:00.001Z</time></trkpt><trkpt lat="40.55331112186188" lon="9.693727407342571"><ele>39.5</ele><time>2026-04-30T08:44:01.001Z</time></trkpt><trkpt lat="40.5533521589179" lon="9.693806463550182"><ele>39.333333333333336</ele><time>2026-04-30T08:44:02.001Z</time></trkpt><trkpt lat="40.55338439355517" lon="9.693902985561667"><ele>39.166666666666664</ele><time>2026-04-30T08:44:03.001Z</time></trkpt><trkpt lat="40.55342466368227" lon="9.69401322941147"><ele>39.0</ele><time>2026-04-30T08:44:04.001Z</time></trkpt><trkpt lat="40.55347089143831" lon="9.69413997784048"><ele>39.0</ele><time>2026-04-30T08:44:05.001Z</time></trkpt><trkpt lat="40.553526953655" lon="9.694253813485936"><ele>39.0</ele><time>2026-04-30T08:44:06.001Z</time></trkpt><trkpt lat="40.55358247716253" lon="9.694384055216181"><ele>39.0</ele><time>2026-04-30T08:44:07.001Z</time></trkpt><trkpt lat="40.553635870033425" lon="9.694516382668805"><ele>39.0</ele><time>2026-04-30T08:44:08.001Z</time></trkpt><trkpt lat="40.55368551055741" lon="9.694650718176428"><ele>39.0</ele><time>2026-04-30T08:44:09.001Z</time></trkpt><trkpt lat="40.55373588949908" lon="9.694782710005796"><ele>38.75</ele><time>2026-04-30T08:44:10.001Z</time></trkpt><trkpt lat="40.55379013216299" lon="9.694910654831183"><ele>38.5</ele><time>2026-04-30T08:44:11.001Z</time></trkpt><trkpt lat="40.553846087336446" lon="9.695042574248953"><ele>38.25</ele><time>2026-04-30T08:44:12.001Z</time></trkpt><trkpt lat="40.55389898847495" lon="9.695181531623836"><ele>38.0</ele><time>2026-04-30T08:44:13.001Z</time></trkpt><trkpt lat="40.55395760082376" lon="9.695321696615501"><ele>38.0</ele><time>2026-04-30T08:44:14.001Z</time></trkpt><trkpt lat="40.55401360495836" lon="9.695454903948068"><ele>38.0</ele><time>2026-04-30T08:44:15.001Z</time></trkpt><trkpt lat="40.5540607198154" lon="9.695588180709438"><ele>38.0</ele><time>2026-04-30T08:44:16.001Z</time></trkpt><trkpt lat="40.55411322748079" lon="9.695721057686173"><ele>38.0</ele><time>2026-04-30T08:44:17.001Z</time></trkpt><trkpt lat="40.554172671803165" lon="9.695858330373857"><ele>38.0</ele><time>2026-04-30T08:44:18.001Z</time></trkpt><trkpt lat="40.55421990514118" lon="9.69599266037098"><ele>38.0</ele><time>2026-04-30T08:44:19.001Z</time></trkpt><trkpt lat="40.55427595974845" lon="9.696130605855986"><ele>38.0</ele><time>2026-04-30T08:44:20.001Z</time></trkpt><trkpt lat="40.554332084562304" lon="9.696268807164392"><ele>38.0</ele><time>2026-04-30T08:44:21.001Z</time></trkpt><trkpt lat="40.554390073871566" lon="9.696408156306155"><ele>38.0</ele><time>2026-04-30T08:44:22.001Z</time></trkpt><trkpt lat="40.55445676742183" lon="9.696544177165812"><ele>38.0</ele><time>2026-04-30T08:44:23.001Z</time></trkpt><trkpt lat="40.554526822340584" lon="9.696702665012978"><ele>38.0</ele><time>2026-04-30T08:44:24.001Z</time></trkpt><trkpt lat="40.554594411965915" lon="9.696859323210365"><ele>38.0</ele><time>2026-04-30T08:44:25.001Z</time></trkpt><trkpt lat="40.5546719570748" lon="9.697035245760851"><ele>38.0</ele><time>2026-04-30T08:44:26.001Z</time></trkpt><trkpt lat="40.55476436106458" lon="9.6972388110957"><ele>38.0</ele><time>2026-04-30T08:44:27.001Z</time></trkpt><trkpt lat="40.55485222896436" lon="9.697443164473402"><ele>38.0</ele><time>2026-04-30T08:44:28.001Z</time></trkpt><trkpt lat="40.55493415085646" lon="9.697640769487116"><ele>38.666666666666664</ele><time>2026-04-30T08:44:29.001Z</time></trkpt><trkpt lat="40.555011617294255" lon="9.697838535776192"><ele>39.333333333333336</ele><time>2026-04-30T08:44:30.001Z</time></trkpt><trkpt lat="40.555085837699686" lon="9.698022718621576"><ele>40.0</ele><time>2026-04-30T08:44:31.001Z</time></trkpt><trkpt lat="40.55516236675628" lon="9.698206955075177"><ele>40.0</ele><time>2026-04-30T08:44:32.001Z</time></trkpt><trkpt lat="40.55523664672305" lon="9.698394270595525"><ele>40.0</ele><time>2026-04-30T08:44:33.001Z</time></trkpt><trkpt lat="40.55530960144342" lon="9.698574345180901"><ele>40.0</ele><time>2026-04-30T08:44:34.002Z</time></trkpt><trkpt lat="40.55538660407653" lon="9.698755141379966"><ele>39.66666666666667</ele><time>2026-04-30T08:44:35.002Z</time></trkpt><trkpt lat="40.55545437831417" lon="9.698937699743597"><ele>39.333333333333336</ele><time>2026-04-30T08:44:36.002Z</time></trkpt><trkpt lat="40.55553194262075" lon="9.69911735345392"><ele>39.0</ele><time>2026-04-30T08:44:37.002Z</time></trkpt><trkpt lat="40.55562487940514" lon="9.699301207531338"><ele>40.333333333333336</ele><time>2026-04-30T08:44:38.002Z</time></trkpt><trkpt lat="40.555729224676064" lon="9.699486274469018"><ele>41.66666666666667</ele><time>2026-04-30T08:44:39.002Z</time></trkpt><trkpt lat="40.555837350576596" lon="9.699673873251715"><ele>43.0</ele><time>2026-04-30T08:44:40.002Z</time></trkpt><trkpt lat="40.55595561401878" lon="9.699867741228008"><ele>43.0</ele><time>2026-04-30T08:44:41.002Z</time></trkpt><trkpt lat="40.55606937581968" lon="9.700056162911482"><ele>43.0</ele><time>2026-04-30T08:44:42.002Z</time></trkpt><trkpt lat="40.55618468432285" lon="9.700245468880471"><ele>43.0</ele><time>2026-04-30T08:44:43.002Z</time></trkpt><trkpt lat="40.556303903902794" lon="9.70043705482344"><ele>41.66666666666667</ele><time>2026-04-30T08:44:44.002Z</time></trkpt><trkpt lat="40.556423998779394" lon="9.700627985816553"><ele>40.333333333333336</ele><time>2026-04-30T08:44:45.002Z</time></trkpt><trkpt lat="40.556545506848195" lon="9.700820301183033"><ele>39.0</ele><time>2026-04-30T08:44:46.002Z</time></trkpt><trkpt lat="40.55666998975697" lon="9.701012214710941"><ele>40.666666666666664</ele><time>2026-04-30T08:44:47Z</time></trkpt><trkpt lat="40.55679234627017" lon="9.701206388055791"><ele>42.33333333333333</ele><time>2026-04-30T08:44:48Z</time></trkpt><trkpt lat="40.556892422366516" lon="9.701405405432444"><ele>44.0</ele><time>2026-04-30T08:44:49Z</time></trkpt><trkpt lat="40.5570132914867" lon="9.701594179426133"><ele>43.33333333333333</ele><time>2026-04-30T08:44:50Z</time></trkpt><trkpt lat="40.55713489629717" lon="9.701785574019231"><ele>42.666666666666664</ele><time>2026-04-30T08:44:51Z</time></trkpt><trkpt lat="40.5572492705655" lon="9.701962762867309"><ele>42.0</ele><time>2026-04-30T08:44:52Z</time></trkpt><trkpt lat="40.557356173944534" lon="9.702126003703308"><ele>42.0</ele><time>2026-04-30T08:44:53Z</time></trkpt><trkpt lat="40.55747482412455" lon="9.702280382613937"><ele>42.0</ele><time>2026-04-30T08:44:54Z</time></trkpt><trkpt lat="40.55759087568487" lon="9.702426956658405"><ele>42.0</ele><time>2026-04-30T08:44:55Z</time></trkpt><trkpt lat="40.5577263441384" lon="9.702569876145148"><ele>41.0</ele><time>2026-04-30T08:44:56Z</time></trkpt><trkpt lat="40.5578699906549" lon="9.702707038137946"><ele>40.0</ele><time>2026-04-30T08:44:57Z</time></trkpt><trkpt lat="40.55801383412144" lon="9.702832992476027"><ele>39.0</ele><time>2026-04-30T08:44:58Z</time></trkpt><trkpt lat="40.558164031674444" lon="9.702959532848714"><ele>39.0</ele><time>2026-04-30T08:44:59Z</time></trkpt><trkpt lat="40.558323185286376" lon="9.703086040741143"><ele>39.0</ele><time>2026-04-30T08:45:00Z</time></trkpt><trkpt lat="40.5584788476095" lon="9.703215514839105"><ele>39.0</ele><time>2026-04-30T08:45:01Z</time></trkpt><trkpt lat="40.55863453883304" lon="9.70334425440637"><ele>38.666666666666664</ele><time>2026-04-30T08:45:02Z</time></trkpt><trkpt lat="40.55878868690871" lon="9.703471428338943"><ele>38.33333333333333</ele><time>2026-04-30T08:45:03Z</time></trkpt><trkpt lat="40.55894560228034" lon="9.703598654658848"><ele>38.0</ele><time>2026-04-30T08:45:04Z</time></trkpt><trkpt lat="40.55909918973267" lon="9.703719569251431"><ele>38.0</ele><time>2026-04-30T08:45:05Z</time></trkpt><trkpt lat="40.55925602520914" lon="9.703843647569434"><ele>38.0</ele><time>2026-04-30T08:45:06Z</time></trkpt><trkpt lat="40.559410017696685" lon="9.703965345320622"><ele>38.0</ele><time>2026-04-30T08:45:07Z</time></trkpt><trkpt lat="40.559563293285024" lon="9.70408901530098"><ele>39.33333333333333</ele><time>2026-04-30T08:45:08Z</time></trkpt><trkpt lat="40.55971704862625" lon="9.704212519102528"><ele>40.666666666666664</ele><time>2026-04-30T08:45:09Z</time></trkpt><trkpt lat="40.55986656660552" lon="9.704334718386763"><ele>42.0</ele><time>2026-04-30T08:45:10Z</time></trkpt><trkpt lat="40.56001701602072" lon="9.704460244258337"><ele>43.0</ele><time>2026-04-30T08:45:11Z</time></trkpt><trkpt lat="40.56016820789001" lon="9.704583922839392"><ele>44.0</ele><time>2026-04-30T08:45:12Z</time></trkpt><trkpt lat="40.56032700698891" lon="9.704714988497827"><ele>45.0</ele><time>2026-04-30T08:45:13Z</time></trkpt><trkpt lat="40.56049074316534" lon="9.70485564144592"><ele>43.666666666666664</ele><time>2026-04-30T08:45:14Z</time></trkpt><trkpt lat="40.56065227573981" lon="9.70499475350684"><ele>42.33333333333333</ele><time>2026-04-30T08:45:15Z</time></trkpt><trkpt lat="40.56081342134793" lon="9.70513515205473"><ele>41.0</ele><time>2026-04-30T08:45:16Z</time></trkpt><trkpt lat="40.560975728043104" lon="9.705272079362368"><ele>41.0</ele><time>2026-04-30T08:45:17Z</time></trkpt><trkpt lat="40.56113999394421" lon="9.705414030038092"><ele>41.0</ele><time>2026-04-30T08:45:18Z</time></trkpt><trkpt lat="40.56130814535051" lon="9.705554108368547"><ele>41.0</ele><time>2026-04-30T08:45:19Z</time></trkpt><trkpt lat="40.5614740244941" lon="9.70569229746668"><ele>39.0</ele><time>2026-04-30T08:45:20Z</time></trkpt><trkpt lat="40.56164076270679" lon="9.705832262226215"><ele>37.0</ele><time>2026-04-30T08:45:21Z</time></trkpt><trkpt lat="40.561806240843886" lon="9.705976098158553"><ele>35.0</ele><time>2026-04-30T08:45:22Z</time></trkpt><trkpt lat="40.5619692248357" lon="9.70612537506235"><ele>34.666666666666664</ele><time>2026-04-30T08:45:23Z</time></trkpt><trkpt lat="40.56213481435893" lon="9.706271546064645"><ele>34.333333333333336</ele><time>2026-04-30T08:45:24.001Z</time></trkpt><trkpt lat="40.562296690774666" lon="9.706417048631165"><ele>34.0</ele><time>2026-04-30T08:45:25.001Z</time></trkpt><trkpt lat="40.5624586030266" lon="9.706559292775852"><ele>34.0</ele><time>2026-04-30T08:45:26.001Z</time></trkpt><trkpt lat="40.562624224595844" lon="9.706700999211526"><ele>34.0</ele><time>2026-04-30T08:45:27.001Z</time></trkpt><trkpt lat="40.562791409581024" lon="9.706844908003228"><ele>34.0</ele><time>2026-04-30T08:45:28.001Z</time></trkpt><trkpt lat="40.56296239465421" lon="9.706988656168866"><ele>33.0</ele><time>2026-04-30T08:45:29.001Z</time></trkpt><trkpt lat="40.56313663518844" lon="9.707136703835461"><ele>32.0</ele><time>2026-04-30T08:45:30.001Z</time></trkpt><trkpt lat="40.56331331718207" lon="9.707288489302123"><ele>31.0</ele><time>2026-04-30T08:45:31.001Z</time></trkpt><trkpt lat="40.56348658685901" lon="9.70744283317853"><ele>31.0</ele><time>2026-04-30T08:45:32.001Z</time></trkpt><trkpt lat="40.56366355188402" lon="9.707600571334401"><ele>31.0</ele><time>2026-04-30T08:45:33.001Z</time></trkpt><trkpt lat="40.563843922509996" lon="9.707758368212154"><ele>31.0</ele><time>2026-04-30T08:45:34.001Z</time></trkpt><trkpt lat="40.56402693340964" lon="9.707918926924716"><ele>30.666666666666668</ele><time>2026-04-30T08:45:35.001Z</time></trkpt><trkpt lat="40.56420953315303" lon="9.708080375418275"><ele>30.333333333333336</ele><time>2026-04-30T08:45:36.001Z</time></trkpt><trkpt lat="40.56439293755123" lon="9.708244176012018"><ele>30.0</ele><time>2026-04-30T08:45:37.001Z</time></trkpt><trkpt lat="40.564573680012884" lon="9.708407046598746"><ele>30.0</ele><time>2026-04-30T08:45:38.001Z</time></trkpt><trkpt lat="40.56474826503901" lon="9.708567766817406"><ele>30.0</ele><time>2026-04-30T08:45:39.001Z</time></trkpt><trkpt lat="40.56491925116274" lon="9.7087183044597"><ele>30.0</ele><time>2026-04-30T08:45:40.001Z</time></trkpt><trkpt lat="40.5650703425821" lon="9.70885260225254"><ele>30.0</ele><time>2026-04-30T08:45:41.001Z</time></trkpt><trkpt lat="40.56520019515603" lon="9.708972728821593"><ele>30.0</ele><time>2026-04-30T08:45:42.001Z</time></trkpt><trkpt lat="40.56532232128677" lon="9.709074940405891"><ele>30.0</ele><time>2026-04-30T08:45:43.001Z</time></trkpt><trkpt lat="40.56542896757943" lon="9.709164985998255"><ele>30.0</ele><time>2026-04-30T08:45:44.001Z</time></trkpt><trkpt lat="40.56552006149366" lon="9.709237186135402"><ele>29.4</ele><time>2026-04-30T08:45:45.001Z</time></trkpt><trkpt lat="40.5655992600035" lon="9.709303684803775"><ele>28.8</ele><time>2026-04-30T08:45:46.001Z</time></trkpt><trkpt lat="40.56568187405517" lon="9.709363329325647"><ele>28.200000000000003</ele><time>2026-04-30T08:45:47.001Z</time></trkpt><trkpt lat="40.565769569373096" lon="9.709430166108545"><ele>27.6</ele><time>2026-04-30T08:45:48.001Z</time></trkpt><trkpt lat="40.565860550129045" lon="9.709504575405399"><ele>27.0</ele><time>2026-04-30T08:45:49.001Z</time></trkpt><trkpt lat="40.56595912288178" lon="9.709585561823824"><ele>27.0</ele><time>2026-04-30T08:45:50.001Z</time></trkpt><trkpt lat="40.56606151034997" lon="9.709672258730038"><ele>27.0</ele><time>2026-04-30T08:45:51.001Z</time></trkpt><trkpt lat="40.566165015795214" lon="9.709765926615061"><ele>27.0</ele><time>2026-04-30T08:45:52.001Z</time></trkpt><trkpt lat="40.56626502272587" lon="9.709853549747825"><ele>27.0</ele><time>2026-04-30T08:45:53.001Z</time></trkpt><trkpt lat="40.566332362370524" lon="9.709917454735622"><ele>27.0</ele><time>2026-04-30T08:45:54.001Z</time></trkpt><trkpt lat="40.56641170447359" lon="9.709995839420436"><ele>27.0</ele><time>2026-04-30T08:45:56.001Z</time></trkpt><trkpt lat="40.56655799689552" lon="9.709965349493512"><ele>27.0</ele><time>2026-04-30T08:45:59.001Z</time></trkpt><trkpt lat="40.56658749620879" lon="9.709857450427217"><ele>27.0</ele><time>2026-04-30T08:46:01.001Z</time></trkpt><trkpt lat="40.56661860174159" lon="9.709703900149227"><ele>27.0</ele><time>2026-04-30T08:46:03.001Z</time></trkpt><trkpt lat="40.56664734637499" lon="9.709608007078064"><ele>27.0</ele><time>2026-04-30T08:46:04.001Z</time></trkpt><trkpt lat="40.56667089613216" lon="9.709508689351791"><ele>27.0</ele><time>2026-04-30T08:46:05.001Z</time></trkpt><trkpt lat="40.56669155558757" lon="9.709415457741935"><ele>27.0</ele><time>2026-04-30T08:46:06.001Z</time></trkpt><trkpt lat="40.56671410710057" lon="9.70932596344194"><ele>27.0</ele><time>2026-04-30T08:46:07.001Z</time></trkpt><trkpt lat="40.56673991706525" lon="9.70924721553617"><ele>27.0</ele><time>2026-04-30T08:46:08.001Z</time></trkpt><trkpt lat="40.56677507128899" lon="9.709170645686912"><ele>27.0</ele><time>2026-04-30T08:46:09.001Z</time></trkpt><trkpt lat="40.56682040406464" lon="9.709100503153742"><ele>27.0</ele><time>2026-04-30T08:46:10.001Z</time></trkpt><trkpt lat="40.56686869487484" lon="9.709036350580591"><ele>27.0</ele><time>2026-04-30T08:46:11.001Z</time></trkpt><trkpt lat="40.56691847849896" lon="9.70896363336001"><ele>27.0</ele><time>2026-04-30T08:46:12.001Z</time></trkpt><trkpt lat="40.56695089479211" lon="9.708859816396219"><ele>27.0</ele><time>2026-04-30T08:46:13.001Z</time></trkpt><trkpt lat="40.5670282333741" lon="9.708781744359378"><ele>27.0</ele><time>2026-04-30T08:46:14.001Z</time></trkpt><trkpt lat="40.56708046816795" lon="9.708660079061056"><ele>27.0</ele><time>2026-04-30T08:46:15.001Z</time></trkpt><trkpt lat="40.56711201530562" lon="9.708511978187298"><ele>26.5</ele><time>2026-04-30T08:46:16.001Z</time></trkpt><trkpt lat="40.56716839504403" lon="9.708351012519913"><ele>26.0</ele><time>2026-04-30T08:46:17.001Z</time></trkpt><trkpt lat="40.567220374958396" lon="9.708191534371723"><ele>25.5</ele><time>2026-04-30T08:46:18.001Z</time></trkpt><trkpt lat="40.56728239860424" lon="9.708035560203124"><ele>25.0</ele><time>2026-04-30T08:46:19.001Z</time></trkpt><trkpt lat="40.56736154977078" lon="9.707873068298738"><ele>24.333333333333336</ele><time>2026-04-30T08:46:20.002Z</time></trkpt><trkpt lat="40.567448158799515" lon="9.707711822908829"><ele>23.666666666666668</ele><time>2026-04-30T08:46:21.002Z</time></trkpt><trkpt lat="40.567531611297134" lon="9.707543434798467"><ele>23.0</ele><time>2026-04-30T08:46:22.002Z</time></trkpt><trkpt lat="40.567594013416446" lon="9.707360651385525"><ele>23.0</ele><time>2026-04-30T08:46:23.002Z</time></trkpt><trkpt lat="40.567648876321236" lon="9.707175629749676"><ele>23.0</ele><time>2026-04-30T08:46:24.002Z</time></trkpt><trkpt lat="40.56770287469536" lon="9.706979918699114"><ele>23.0</ele><time>2026-04-30T08:46:25.002Z</time></trkpt><trkpt lat="40.56775108427382" lon="9.706790746658761"><ele>23.333333333333336</ele><time>2026-04-30T08:46:26.002Z</time></trkpt><trkpt lat="40.56780320219912" lon="9.706598934626102"><ele>23.666666666666668</ele><time>2026-04-30T08:46:27.002Z</time></trkpt><trkpt lat="40.56786318618001" lon="9.706410170018247"><ele>24.0</ele><time>2026-04-30T08:46:28.002Z</time></trkpt><trkpt lat="40.567933467260325" lon="9.706231049721476"><ele>24.5</ele><time>2026-04-30T08:46:29.002Z</time></trkpt><trkpt lat="40.568011688990126" lon="9.70605675156796"><ele>25.0</ele><time>2026-04-30T08:46:30.002Z</time></trkpt><trkpt lat="40.56810040649975" lon="9.705902128548402"><ele>25.5</ele><time>2026-04-30T08:46:31.002Z</time></trkpt><trkpt lat="40.56819099334774" lon="9.705747784628146"><ele>26.0</ele><time>2026-04-30T08:46:32.002Z</time></trkpt><trkpt lat="40.56828068015002" lon="9.705606650884556"><ele>26.0</ele><time>2026-04-30T08:46:33.002Z</time></trkpt><trkpt lat="40.56837504312753" lon="9.705481137614775"><ele>26.0</ele><time>2026-04-30T08:46:34.002Z</time></trkpt><trkpt lat="40.56848070286353" lon="9.705364967047762"><ele>26.0</ele><time>2026-04-30T08:46:35.002Z</time></trkpt><trkpt lat="40.56859740029977" lon="9.7052601499631"><ele>26.0</ele><time>2026-04-30T08:46:36.002Z</time></trkpt><trkpt lat="40.568720318067264" lon="9.705158760492829"><ele>25.25</ele><time>2026-04-30T08:46:37.002Z</time></trkpt><trkpt lat="40.568848455015946" lon="9.705057997009936"><ele>24.5</ele><time>2026-04-30T08:46:38.002Z</time></trkpt><trkpt lat="40.56897165682897" lon="9.704959824877337"><ele>23.75</ele><time>2026-04-30T08:46:39.002Z</time></trkpt><trkpt lat="40.56908964372196" lon="9.704868718681697"><ele>23.0</ele><time>2026-04-30T08:46:40.002Z</time></trkpt><trkpt lat="40.569205988531806" lon="9.704784561142114"><ele>23.0</ele><time>2026-04-30T08:46:41.002Z</time></trkpt><trkpt lat="40.569316018251605" lon="9.704703174336249"><ele>23.0</ele><time>2026-04-30T08:46:42.002Z</time></trkpt><trkpt lat="40.56941937917288" lon="9.704624585363863"><ele>23.0</ele><time>2026-04-30T08:46:43.002Z</time></trkpt><trkpt lat="40.56951394770476" lon="9.704549746995498"><ele>23.0</ele><time>2026-04-30T08:46:44.002Z</time></trkpt><trkpt lat="40.56960129648445" lon="9.704485652852558"><ele>22.833333333333336</ele><time>2026-04-30T08:46:45.002Z</time></trkpt><trkpt lat="40.569679911769676" lon="9.70443429712908"><ele>22.666666666666668</ele><time>2026-04-30T08:46:46.002Z</time></trkpt><trkpt lat="40.56974322846793" lon="9.704380282784165"><ele>22.5</ele><time>2026-04-30T08:46:47.002Z</time></trkpt><trkpt lat="40.56980885318612" lon="9.704326341400822"><ele>22.333333333333332</ele><time>2026-04-30T08:46:49.002Z</time></trkpt><trkpt lat="40.56986961225026" lon="9.704271168232204"><ele>22.166666666666664</ele><time>2026-04-30T08:47:05Z</time></trkpt><trkpt lat="40.56984298538741" lon="9.704175590480059"><ele>22.0</ele><time>2026-04-30T08:47:06Z</time></trkpt><trkpt lat="40.569798949740346" lon="9.704039829397168"><ele>21.833333333333332</ele><time>2026-04-30T08:47:08Z</time></trkpt><trkpt lat="40.56976497477672" lon="9.703962276023297"><ele>21.666666666666664</ele><time>2026-04-30T08:47:09Z</time></trkpt><trkpt lat="40.56972679741158" lon="9.703866800710617"><ele>21.5</ele><time>2026-04-30T08:47:10Z</time></trkpt><trkpt lat="40.569673673940365" lon="9.703758337269296"><ele>21.333333333333332</ele><time>2026-04-30T08:47:11Z</time></trkpt><trkpt lat="40.569624161904976" lon="9.703652334381353"><ele>21.166666666666668</ele><time>2026-04-30T08:47:12Z</time></trkpt><trkpt lat="40.569577144799936" lon="9.703531771513301"><ele>21.0</ele><time>2026-04-30T08:47:13Z</time></trkpt><trkpt lat="40.56953401418313" lon="9.703398764620017"><ele>21.0</ele><time>2026-04-30T08:47:14Z</time></trkpt><trkpt lat="40.56949496554745" lon="9.703262086908309"><ele>21.0</ele><time>2026-04-30T08:47:15Z</time></trkpt><trkpt lat="40.569457284182285" lon="9.703109542170646"><ele>21.0</ele><time>2026-04-30T08:47:16Z</time></trkpt><trkpt lat="40.56942147664269" lon="9.702951442348217"><ele>21.0</ele><time>2026-04-30T08:47:17Z</time></trkpt><trkpt lat="40.56939208657964" lon="9.70278712469439"><ele>19.5</ele><time>2026-04-30T08:47:18Z</time></trkpt><trkpt lat="40.56936577738012" lon="9.702624934722644"><ele>18.0</ele><time>2026-04-30T08:47:19Z</time></trkpt><trkpt lat="40.56933703420749" lon="9.702456048292108"><ele>16.5</ele><time>2026-04-30T08:47:20Z</time></trkpt><trkpt lat="40.569307517011545" lon="9.702287061733418"><ele>15.0</ele><time>2026-04-30T08:47:21Z</time></trkpt><trkpt lat="40.5692766288222" lon="9.702112685812532"><ele>15.0</ele><time>2026-04-30T08:47:22Z</time></trkpt><trkpt lat="40.569249278442584" lon="9.701941853975564"><ele>15.0</ele><time>2026-04-30T08:47:23Z</time></trkpt><trkpt lat="40.569224012908016" lon="9.701775596799205"><ele>15.0</ele><time>2026-04-30T08:47:24.001Z</time></trkpt><trkpt lat="40.56920522152413" lon="9.70160669854908"><ele>15.0</ele><time>2026-04-30T08:47:25.001Z</time></trkpt><trkpt lat="40.56919618343044" lon="9.70145143379251"><ele>14.75</ele><time>2026-04-30T08:47:26.001Z</time></trkpt><trkpt lat="40.56919547819743" lon="9.701298146696278"><ele>14.5</ele><time>2026-04-30T08:47:27.001Z</time></trkpt><trkpt lat="40.56922310829825" lon="9.701153978804745"><ele>14.25</ele><time>2026-04-30T08:47:28.001Z</time></trkpt><trkpt lat="40.5692708641866" lon="9.701013811706064"><ele>14.0</ele><time>2026-04-30T08:47:29.001Z</time></trkpt><trkpt lat="40.56933744234776" lon="9.700882087344752"><ele>14.5</ele><time>2026-04-30T08:47:30.001Z</time></trkpt><trkpt lat="40.56940871488505" lon="9.700750791618447"><ele>15.0</ele><time>2026-04-30T08:47:31.001Z</time></trkpt><trkpt lat="40.56948336881583" lon="9.700615484862361"><ele>15.5</ele><time>2026-04-30T08:47:32.001Z</time></trkpt><trkpt lat="40.56955305273369" lon="9.700476515935446"><ele>16.0</ele><time>2026-04-30T08:47:33.001Z</time></trkpt><trkpt lat="40.56962132612625" lon="9.700331454763198"><ele>16.75</ele><time>2026-04-30T08:47:34.001Z</time></trkpt><trkpt lat="40.56969019998211" lon="9.700193553150012"><ele>17.5</ele><time>2026-04-30T08:47:35.001Z</time></trkpt><trkpt lat="40.56975836903107" lon="9.700058256797279"><ele>18.25</ele><time>2026-04-30T08:47:36.001Z</time></trkpt><trkpt lat="40.56983766048352" lon="9.69991580587983"><ele>19.0</ele><time>2026-04-30T08:47:37.001Z</time></trkpt><trkpt lat="40.56990855585616" lon="9.699772184770342"><ele>19.0</ele><time>2026-04-30T08:47:38.001Z</time></trkpt><trkpt lat="40.56998104333021" lon="9.699638630679146"><ele>19.0</ele><time>2026-04-30T08:47:39.001Z</time></trkpt><trkpt lat="40.57004727349695" lon="9.69950856509701"><ele>19.0</ele><time>2026-04-30T08:47:40.001Z</time></trkpt><trkpt lat="40.57011346921182" lon="9.699386915784839"><ele>19.0</ele><time>2026-04-30T08:47:41.001Z</time></trkpt><trkpt lat="40.57018369656961" lon="9.699260890015113"><ele>19.25</ele><time>2026-04-30T08:47:42.001Z</time></trkpt><trkpt lat="40.57024833141727" lon="9.699136073552044"><ele>19.5</ele><time>2026-04-30T08:47:43.001Z</time></trkpt><trkpt lat="40.57031160673328" lon="9.699007632454455"><ele>19.75</ele><time>2026-04-30T08:47:44.001Z</time></trkpt><trkpt lat="40.570377617467905" lon="9.698884889273174"><ele>20.0</ele><time>2026-04-30T08:47:45.001Z</time></trkpt><trkpt lat="40.57043962498444" lon="9.698765515509926"><ele>20.2</ele><time>2026-04-30T08:47:46.001Z</time></trkpt><trkpt lat="40.57050302483242" lon="9.698639741512375"><ele>20.4</ele><time>2026-04-30T08:47:47.001Z</time></trkpt><trkpt lat="40.57056506230735" lon="9.69851905677547"><ele>20.6</ele><time>2026-04-30T08:47:48.001Z</time></trkpt><trkpt lat="40.57062169416728" lon="9.698409423493938"><ele>20.8</ele><time>2026-04-30T08:47:49.001Z</time></trkpt><trkpt lat="40.570674420387704" lon="9.698300887346226"><ele>21.0</ele><time>2026-04-30T08:47:50.001Z</time></trkpt><trkpt lat="40.57072053195874" lon="9.698223440434985"><ele>22.0</ele><time>2026-04-30T08:47:51.001Z</time></trkpt><trkpt lat="40.57076296209203" lon="9.698124717010847"><ele>23.0</ele><time>2026-04-30T08:47:53.001Z</time></trkpt><trkpt lat="40.57092533868216" lon="9.698273123528454"><ele>24.0</ele><time>2026-04-30T08:47:56.001Z</time></trkpt><trkpt lat="40.57098111875027" lon="9.698347408402713"><ele>25.0</ele><time>2026-04-30T08:47:57.001Z</time></trkpt><trkpt lat="40.57105574330188" lon="9.698421898282572"><ele>25.0</ele><time>2026-04-30T08:47:58.001Z</time></trkpt><trkpt lat="40.57113940589577" lon="9.698490755065635"><ele>25.0</ele><time>2026-04-30T08:47:59.001Z</time></trkpt><trkpt lat="40.57122159747494" lon="9.698557266234047"><ele>25.0</ele><time>2026-04-30T08:48:00.001Z</time></trkpt><trkpt lat="40.57131084159003" lon="9.698622761089746"><ele>25.0</ele><time>2026-04-30T08:48:01.001Z</time></trkpt><trkpt lat="40.571394957060974" lon="9.69869609302547"><ele>25.0</ele><time>2026-04-30T08:48:02.001Z</time></trkpt><trkpt lat="40.57148494736787" lon="9.698768640762863"><ele>24.666666666666668</ele><time>2026-04-30T08:48:03.001Z</time></trkpt><trkpt lat="40.571566377023714" lon="9.698840613424554"><ele>24.333333333333336</ele><time>2026-04-30T08:48:04.001Z</time></trkpt><trkpt lat="40.5716413074628" lon="9.698900911023536"><ele>24.0</ele><time>2026-04-30T08:48:05.001Z</time></trkpt><trkpt lat="40.571694856796114" lon="9.698944969223037"><ele>23.666666666666668</ele><time>2026-04-30T08:48:06.001Z</time></trkpt><trkpt lat="40.571762551758255" lon="9.698977825315165"><ele>23.333333333333336</ele><time>2026-04-30T08:48:07.001Z</time></trkpt><trkpt lat="40.57184040017097" lon="9.698990679789867"><ele>23.0</ele><time>2026-04-30T08:48:08.001Z</time></trkpt><trkpt lat="40.57191103986654" lon="9.698969410990218"><ele>23.0</ele><time>2026-04-30T08:48:09.001Z</time></trkpt><trkpt lat="40.57197306497441" lon="9.698910856837971"><ele>23.0</ele><time>2026-04-30T08:48:10.001Z</time></trkpt><trkpt lat="40.57198342769702" lon="9.698824525589469"><ele>23.0</ele><time>2026-04-30T08:48:11.001Z</time></trkpt><trkpt lat="40.571970925579514" lon="9.698930117651969"><ele>23.0</ele><time>2026-04-30T08:48:12.001Z</time></trkpt><trkpt lat="40.5719768313106" lon="9.698846121472831"><ele>23.0</ele><time>2026-04-30T08:48:13.001Z</time></trkpt><trkpt lat="40.57200416484621" lon="9.698756633532867"><ele>23.0</ele><time>2026-04-30T08:48:14.001Z</time></trkpt><trkpt lat="40.57203725810597" lon="9.69864592379902"><ele>24.2</ele><time>2026-04-30T08:48:16.001Z</time></trkpt><trkpt lat="40.57203653498691" lon="9.698552874069284"><ele>25.4</ele><time>2026-04-30T08:48:24.002Z</time></trkpt><trkpt lat="40.57210225969517" lon="9.698370729668856"><ele>26.599999999999998</ele><time>2026-04-30T08:48:26.002Z</time></trkpt><trkpt lat="40.572143133492666" lon="9.69829141017778"><ele>27.799999999999997</ele><time>2026-04-30T08:48:27.002Z</time></trkpt><trkpt lat="40.572187368806645" lon="9.698212414915332"><ele>29.0</ele><time>2026-04-30T08:48:28.002Z</time></trkpt><trkpt lat="40.572233662055346" lon="9.69811506263244"><ele>28.999999999999996</ele><time>2026-04-30T08:48:29.002Z</time></trkpt><trkpt lat="40.572273518725865" lon="9.69802967107205"><ele>29.0</ele><time>2026-04-30T08:48:30.002Z</time></trkpt><trkpt lat="40.57231635436982" lon="9.697916343927485"><ele>29.0</ele><time>2026-04-30T08:48:32.002Z</time></trkpt><trkpt lat="40.57240709770505" lon="9.69798814039056"><ele>29.0</ele><time>2026-04-30T08:48:33.002Z</time></trkpt><trkpt lat="40.57247243393706" lon="9.697970541826038"><ele>28.999999999999996</ele><time>2026-04-30T08:48:34.002Z</time></trkpt><trkpt lat="40.57256744937607" lon="9.697998492162522"><ele>29.0</ele><time>2026-04-30T08:48:35.002Z</time></trkpt><trkpt lat="40.572632241680914" lon="9.697984522383864"><ele>29.0</ele><time>2026-04-30T08:48:36.002Z</time></trkpt><trkpt lat="40.57275122063124" lon="9.697968172757474"><ele>29.0</ele><time>2026-04-30T08:48:38.002Z</time></trkpt><trkpt lat="40.57285594425903" lon="9.697942460639137"><ele>29.0</ele><time>2026-04-30T08:48:40.002Z</time></trkpt><trkpt lat="40.57297294321656" lon="9.697930477739643"><ele>29.0</ele><time>2026-04-30T08:48:42.002Z</time></trkpt><trkpt lat="40.57300314512941" lon="9.69803869764606"><ele>29.0</ele><time>2026-04-30T08:48:51.002Z</time></trkpt><trkpt lat="40.57310113888113" lon="9.698082692935337"><ele>28.833333333333332</ele><time>2026-04-30T08:48:59.001Z</time></trkpt><trkpt lat="40.57316785218873" lon="9.698022243254766"><ele>28.666666666666664</ele><time>2026-04-30T08:49:00.001Z</time></trkpt><trkpt lat="40.573234591829504" lon="9.69796176966207"><ele>28.5</ele><time>2026-04-30T08:49:01.001Z</time></trkpt><trkpt lat="40.57330252189496" lon="9.697900310898602"><ele>28.333333333333336</ele><time>2026-04-30T08:49:02.001Z</time></trkpt><trkpt lat="40.573370280308886" lon="9.69783941115753"><ele>28.166666666666668</ele><time>2026-04-30T08:49:03.001Z</time></trkpt><trkpt lat="40.57344306898442" lon="9.69777399144154"><ele>28.0</ele><time>2026-04-30T08:49:04.001Z</time></trkpt><trkpt lat="40.573520502357056" lon="9.69770314970404"><ele>28.0</ele><time>2026-04-30T08:49:05.001Z</time></trkpt><trkpt lat="40.57359282722767" lon="9.697612014972982"><ele>27.999999999999996</ele><time>2026-04-30T08:49:06.001Z</time></trkpt><trkpt lat="40.573673616203685" lon="9.697542877063679"><ele>27.999999999999996</ele><time>2026-04-30T08:49:07.001Z</time></trkpt><trkpt lat="40.57375097822413" lon="9.697474666107313"><ele>28.0</ele><time>2026-04-30T08:49:08.001Z</time></trkpt><trkpt lat="40.573838914869896" lon="9.697420652459412"><ele>28.0</ele><time>2026-04-30T08:49:09.001Z</time></trkpt><trkpt lat="40.57391917576763" lon="9.69735992244817"><ele>27.4</ele><time>2026-04-30T08:49:10.001Z</time></trkpt><trkpt lat="40.57400068453061" lon="9.697289958974034"><ele>26.799999999999997</ele><time>2026-04-30T08:49:11.001Z</time></trkpt><trkpt lat="40.574096889880956" lon="9.697263613035883"><ele>26.2</ele><time>2026-04-30T08:49:12.001Z</time></trkpt><trkpt lat="40.57417873715414" lon="9.69723703933385"><ele>25.6</ele><time>2026-04-30T08:49:13.001Z</time></trkpt><trkpt lat="40.57426488006914" lon="9.69722064187197"><ele>25.0</ele><time>2026-04-30T08:49:14.001Z</time></trkpt><trkpt lat="40.57435657079296" lon="9.697214781736722"><ele>25.0</ele><time>2026-04-30T08:49:15.001Z</time></trkpt><trkpt lat="40.5744503750552" lon="9.697204113575786"><ele>25.0</ele><time>2026-04-30T08:49:16.001Z</time></trkpt><trkpt lat="40.57454498917395" lon="9.697185382869328"><ele>25.0</ele><time>2026-04-30T08:49:17.001Z</time></trkpt><trkpt lat="40.57464318895356" lon="9.697181355221"><ele>25.0</ele><time>2026-04-30T08:49:18.001Z</time></trkpt><trkpt lat="40.574739483406795" lon="9.69717580313869"><ele>25.0</ele><time>2026-04-30T08:49:19.001Z</time></trkpt><trkpt lat="40.574847587953045" lon="9.697173732459417"><ele>24.4</ele><time>2026-04-30T08:49:20.001Z</time></trkpt><trkpt lat="40.574941743449784" lon="9.697173544629912"><ele>23.8</ele><time>2026-04-30T08:49:21.001Z</time></trkpt><trkpt lat="40.575040030804914" lon="9.69717383799859"><ele>23.200000000000003</ele><time>2026-04-30T08:49:22.001Z</time></trkpt><trkpt lat="40.57513534415046" lon="9.697175156310134"><ele>22.6</ele><time>2026-04-30T08:49:23.001Z</time></trkpt><trkpt lat="40.575234085253264" lon="9.697170263691959"><ele>22.0</ele><time>2026-04-30T08:49:24.001Z</time></trkpt><trkpt lat="40.57533418822724" lon="9.697173067186721"><ele>22.6</ele><time>2026-04-30T08:49:25.001Z</time></trkpt><trkpt lat="40.57542104087518" lon="9.697195656879622"><ele>23.200000000000003</ele><time>2026-04-30T08:49:26.001Z</time></trkpt><trkpt lat="40.57551900052716" lon="9.69719409406685"><ele>23.8</ele><time>2026-04-30T08:49:27.001Z</time></trkpt><trkpt lat="40.57562184593132" lon="9.697189049022851"><ele>24.4</ele><time>2026-04-30T08:49:28.001Z</time></trkpt><trkpt lat="40.575710492439754" lon="9.697193011292061"><ele>25.0</ele><time>2026-04-30T08:49:29.001Z</time></trkpt><trkpt lat="40.575792237789194" lon="9.697202279890755"><ele>25.0</ele><time>2026-04-30T08:49:30.001Z</time></trkpt><trkpt lat="40.57587158576972" lon="9.697200556285397"><ele>25.0</ele><time>2026-04-30T08:49:31.001Z</time></trkpt><trkpt lat="40.57593666621344" lon="9.697205782863485"><ele>25.0</ele><time>2026-04-30T08:49:32.001Z</time></trkpt><trkpt lat="40.576069432685486" lon="9.697218713335076"><ele>25.0</ele><time>2026-04-30T08:49:34.001Z</time></trkpt><trkpt lat="40.57614443887065" lon="9.697215577984974"><ele>25.0</ele><time>2026-04-30T08:49:35.001Z</time></trkpt><trkpt lat="40.57625243875701" lon="9.697231399614509"><ele>26.0</ele><time>2026-04-30T08:49:37.001Z</time></trkpt><trkpt lat="40.576380281973144" lon="9.697223824238826"><ele>27.0</ele><time>2026-04-30T08:49:39.001Z</time></trkpt><trkpt lat="40.576441647355175" lon="9.697201217649553"><ele>28.0</ele><time>2026-04-30T08:49:40.001Z</time></trkpt><trkpt lat="40.57655280264579" lon="9.697194649457318"><ele>29.0</ele><time>2026-04-30T08:49:42.001Z</time></trkpt><trkpt lat="40.57666757679336" lon="9.697188677599314"><ele>30.0</ele><time>2026-04-30T08:49:44.001Z</time></trkpt><trkpt lat="40.5767416201927" lon="9.697188987606026"><ele>30.0</ele><time>2026-04-30T08:49:45.001Z</time></trkpt><trkpt lat="40.576866005337585" lon="9.697173163517888"><ele>30.0</ele><time>2026-04-30T08:49:47.001Z</time></trkpt><trkpt lat="40.576927688725725" lon="9.697153606679866"><ele>30.0</ele><time>2026-04-30T08:49:48.001Z</time></trkpt><trkpt lat="40.576986620044046" lon="9.697120949942702"><ele>30.0</ele><time>2026-04-30T08:49:49.001Z</time></trkpt><trkpt lat="40.57707643836493" lon="9.697058933096503"><ele>30.0</ele><time>2026-04-30T08:49:51.001Z</time></trkpt><trkpt lat="40.57718310617289" lon="9.69700035544788"><ele>31.2</ele><time>2026-04-30T08:49:53.001Z</time></trkpt><trkpt lat="40.577275206408544" lon="9.696901983932326"><ele>32.4</ele><time>2026-04-30T08:49:55.001Z</time></trkpt><trkpt lat="40.57736611914598" lon="9.696847098633258"><ele>33.6</ele><time>2026-04-30T08:49:57.001Z</time></trkpt><trkpt lat="40.577465623973765" lon="9.696783166023716"><ele>34.8</ele><time>2026-04-30T08:49:59.001Z</time></trkpt><trkpt lat="40.57757332372617" lon="9.69672273494699"><ele>36.0</ele><time>2026-04-30T08:50:01.001Z</time></trkpt><trkpt lat="40.577643468504654" lon="9.696696316423298"><ele>36.0</ele><time>2026-04-30T08:50:03.002Z</time></trkpt><trkpt lat="40.5777288237165" lon="9.69664897915007"><ele>36.0</ele><time>2026-04-30T08:50:10.002Z</time></trkpt><trkpt lat="40.577824044575244" lon="9.696654169667951"><ele>36.0</ele><time>2026-04-30T08:50:12.002Z</time></trkpt><trkpt lat="40.577911282800564" lon="9.696603401631156"><ele>36.0</ele><time>2026-04-30T08:50:14.002Z</time></trkpt><trkpt lat="40.57798587795939" lon="9.696491503924216"><ele>36.0</ele><time>2026-04-30T08:50:16.002Z</time></trkpt><trkpt lat="40.57802364982839" lon="9.696411346865348"><ele>36.8</ele><time>2026-04-30T08:50:18.002Z</time></trkpt><trkpt lat="40.578073534191375" lon="9.696351393779738"><ele>37.6</ele><time>2026-04-30T08:50:23.002Z</time></trkpt><trkpt lat="40.57815941142384" lon="9.696240549259098"><ele>38.4</ele><time>2026-04-30T08:50:25.002Z</time></trkpt><trkpt lat="40.578261002961405" lon="9.696136491250298"><ele>39.2</ele><time>2026-04-30T08:50:27.002Z</time></trkpt><trkpt lat="40.5783139423506" lon="9.696083451530717"><ele>40.0</ele><time>2026-04-30T08:50:28.002Z</time></trkpt><trkpt lat="40.578368394371594" lon="9.696031126224351"><ele>40.0</ele><time>2026-04-30T08:50:29.002Z</time></trkpt><trkpt lat="40.57842714652826" lon="9.69595939072539"><ele>40.0</ele><time>2026-04-30T08:50:30.002Z</time></trkpt><trkpt lat="40.57848938190165" lon="9.695896443151764"><ele>40.0</ele><time>2026-04-30T08:50:31.002Z</time></trkpt><trkpt lat="40.5785557682545" lon="9.69582458541486"><ele>40.0</ele><time>2026-04-30T08:50:32.002Z</time></trkpt><trkpt lat="40.578619754592815" lon="9.695743538296913"><ele>40.0</ele><time>2026-04-30T08:50:33.002Z</time></trkpt><trkpt lat="40.57868521913008" lon="9.69567718618493"><ele>40.0</ele><time>2026-04-30T08:50:34.002Z</time></trkpt><trkpt lat="40.578741560002875" lon="9.695612559685452"><ele>40.333333333333336</ele><time>2026-04-30T08:50:35.002Z</time></trkpt><trkpt lat="40.57880008966503" lon="9.695570635253496"><ele>40.66666666666667</ele><time>2026-04-30T08:50:36.002Z</time></trkpt><trkpt lat="40.57885531347097" lon="9.695508050440205"><ele>41.0</ele><time>2026-04-30T08:50:37.002Z</time></trkpt><trkpt lat="40.57890727439977" lon="9.69543761604342"><ele>41.333333333333336</ele><time>2026-04-30T08:50:38.002Z</time></trkpt><trkpt lat="40.57895229852711" lon="9.695378335999408"><ele>41.666666666666664</ele><time>2026-04-30T08:50:39.002Z</time></trkpt><trkpt lat="40.579077393053076" lon="9.695430589399969"><ele>42.0</ele><time>2026-04-30T08:50:40.002Z</time></trkpt><trkpt lat="40.57917091919981" lon="9.6954522444772"><ele>42.0</ele><time>2026-04-30T08:50:41.002Z</time></trkpt><trkpt lat="40.57925918227471" lon="9.695489018642556"><ele>42.0</ele><time>2026-04-30T08:50:42.002Z</time></trkpt><trkpt lat="40.57934943875307" lon="9.695528998935911"><ele>42.0</ele><time>2026-04-30T08:50:43.002Z</time></trkpt><trkpt lat="40.57943983605199" lon="9.695566554907613"><ele>42.0</ele><time>2026-04-30T08:50:44.002Z</time></trkpt><trkpt lat="40.57954177616038" lon="9.69560053683415"><ele>42.0</ele><time>2026-04-30T08:50:45.002Z</time></trkpt><trkpt lat="40.57964225820959" lon="9.695644304861233"><ele>42.6</ele><time>2026-04-30T08:50:46.002Z</time></trkpt><trkpt lat="40.579743312865986" lon="9.695676757868016"><ele>43.2</ele><time>2026-04-30T08:50:47.002Z</time></trkpt><trkpt lat="40.57984460956081" lon="9.695705617068962"><ele>43.8</ele><time>2026-04-30T08:50:48.002Z</time></trkpt><trkpt lat="40.57994645222256" lon="9.695739056121134"><ele>44.4</ele><time>2026-04-30T08:50:49.002Z</time></trkpt><trkpt lat="40.580037751807" lon="9.69577338863099"><ele>45.0</ele><time>2026-04-30T08:50:50.002Z</time></trkpt><trkpt lat="40.580124427685156" lon="9.695795903720379"><ele>45.0</ele><time>2026-04-30T08:50:51.002Z</time></trkpt><trkpt lat="40.580196931119026" lon="9.695819195918657"><ele>45.0</ele><time>2026-04-30T08:50:52.002Z</time></trkpt><trkpt lat="40.58029415531969" lon="9.69584773792152"><ele>45.0</ele><time>2026-04-30T08:50:54.002Z</time></trkpt><trkpt lat="40.58036490572568" lon="9.695873102637787"><ele>45.0</ele><time>2026-04-30T08:50:56.002Z</time></trkpt><trkpt lat="40.580464386657596" lon="9.695897892612583"><ele>45.0</ele><time>2026-04-30T08:50:58.002Z</time></trkpt><trkpt lat="40.58052816857366" lon="9.695915661370664"><ele>45.0</ele><time>2026-04-30T08:50:59.002Z</time></trkpt><trkpt lat="40.58060445866901" lon="9.69593246636368"><ele>46.0</ele><time>2026-04-30T08:51:00.002Z</time></trkpt><trkpt lat="40.58068796681956" lon="9.695963565513356"><ele>47.0</ele><time>2026-04-30T08:51:01.002Z</time></trkpt><trkpt lat="40.580769231532514" lon="9.695989171778686"><ele>48.0</ele><time>2026-04-30T08:51:02.002Z</time></trkpt><trkpt lat="40.58085991968756" lon="9.695990216615154"><ele>49.0</ele><time>2026-04-30T08:51:03.002Z</time></trkpt><trkpt lat="40.5809555180265" lon="9.696027543209535"><ele>50.0</ele><time>2026-04-30T08:51:04.001Z</time></trkpt><trkpt lat="40.58105954746036" lon="9.69603517773179"><ele>50.0</ele><time>2026-04-30T08:51:05.001Z</time></trkpt><trkpt lat="40.581171444326934" lon="9.696017777937417"><ele>50.0</ele><time>2026-04-30T08:51:06.001Z</time></trkpt><trkpt lat="40.581281389743815" lon="9.695978123412589"><ele>50.0</ele><time>2026-04-30T08:51:07.001Z</time></trkpt><trkpt lat="40.581381790137804" lon="9.695933583249309"><ele>50.0</ele><time>2026-04-30T08:51:08.001Z</time></trkpt><trkpt lat="40.5814828651044" lon="9.69588535885084"><ele>50.0</ele><time>2026-04-30T08:51:09.001Z</time></trkpt><trkpt lat="40.58158919711852" lon="9.695834082556958"><ele>50.5</ele><time>2026-04-30T08:51:10.001Z</time></trkpt><trkpt lat="40.58170485671386" lon="9.695778308315274"><ele>51.0</ele><time>2026-04-30T08:51:11.001Z</time></trkpt><trkpt lat="40.58182091941561" lon="9.695720590407324"><ele>51.5</ele><time>2026-04-30T08:51:12.001Z</time></trkpt><trkpt lat="40.58193634500248" lon="9.695662924111678"><ele>52.0</ele><time>2026-04-30T08:51:13.001Z</time></trkpt><trkpt lat="40.58204842994419" lon="9.695590096745356"><ele>52.25</ele><time>2026-04-30T08:51:14.001Z</time></trkpt><trkpt lat="40.58216724957008" lon="9.695539072256937"><ele>52.5</ele><time>2026-04-30T08:51:15.001Z</time></trkpt><trkpt lat="40.58228142186184" lon="9.695480493803853"><ele>52.75</ele><time>2026-04-30T08:51:16.001Z</time></trkpt><trkpt lat="40.58239723898435" lon="9.695415991018745"><ele>53.0</ele><time>2026-04-30T08:51:17.001Z</time></trkpt><trkpt lat="40.58251985066718" lon="9.695360184322148"><ele>53.0</ele><time>2026-04-30T08:51:18.001Z</time></trkpt><trkpt lat="40.58263778140633" lon="9.695295338382179"><ele>53.0</ele><time>2026-04-30T08:51:19.001Z</time></trkpt><trkpt lat="40.58275049725346" lon="9.695224238802014"><ele>53.0</ele><time>2026-04-30T08:51:20.001Z</time></trkpt><trkpt lat="40.58286124841177" lon="9.695136605351983"><ele>53.0</ele><time>2026-04-30T08:51:21.001Z</time></trkpt><trkpt lat="40.58297474208244" lon="9.69503170768593"><ele>52.0</ele><time>2026-04-30T08:51:22.001Z</time></trkpt><trkpt lat="40.583092855094044" lon="9.69491450643601"><ele>51.0</ele><time>2026-04-30T08:51:23.001Z</time></trkpt><trkpt lat="40.58320571609698" lon="9.694805170876663"><ele>50.0</ele><time>2026-04-30T08:51:24.001Z</time></trkpt><trkpt lat="40.583323371866584" lon="9.694691960242851"><ele>49.0</ele><time>2026-04-30T08:51:25.001Z</time></trkpt><trkpt lat="40.58344266841694" lon="9.694571247747296"><ele>49.0</ele><time>2026-04-30T08:51:26.001Z</time></trkpt><trkpt lat="40.583568839955014" lon="9.694444515589979"><ele>49.0</ele><time>2026-04-30T08:51:27.001Z</time></trkpt><trkpt lat="40.5836968948413" lon="9.694321073117878"><ele>49.0</ele><time>2026-04-30T08:51:28.001Z</time></trkpt><trkpt lat="40.58382603641702" lon="9.694193137954468"><ele>47.666666666666664</ele><time>2026-04-30T08:51:29.001Z</time></trkpt><trkpt lat="40.58395614057714" lon="9.694055932038133"><ele>46.33333333333333</ele><time>2026-04-30T08:51:30.001Z</time></trkpt><trkpt lat="40.58409385866821" lon="9.693933165661997"><ele>45.0</ele><time>2026-04-30T08:51:31.001Z</time></trkpt><trkpt lat="40.584234157943975" lon="9.693811023465008"><ele>45.0</ele><time>2026-04-30T08:51:32.001Z</time></trkpt><trkpt lat="40.58436483057721" lon="9.69368967754177"><ele>45.0</ele><time>2026-04-30T08:51:33.001Z</time></trkpt><trkpt lat="40.58449928357986" lon="9.693576435327616"><ele>45.0</ele><time>2026-04-30T08:51:34.001Z</time></trkpt><trkpt lat="40.58463335351556" lon="9.693456367213244"><ele>44.0</ele><time>2026-04-30T08:51:35.001Z</time></trkpt><trkpt lat="40.584763829525436" lon="9.693344231694178"><ele>43.0</ele><time>2026-04-30T08:51:36.001Z</time></trkpt><trkpt lat="40.58490080711957" lon="9.693227209826166"><ele>42.0</ele><time>2026-04-30T08:51:37.001Z</time></trkpt><trkpt lat="40.58503424859205" lon="9.693112302267211"><ele>42.0</ele><time>2026-04-30T08:51:38.001Z</time></trkpt><trkpt lat="40.58516966414592" lon="9.692998723768362"><ele>42.0</ele><time>2026-04-30T08:51:39.001Z</time></trkpt><trkpt lat="40.58529586064041" lon="9.692892792671369"><ele>42.0</ele><time>2026-04-30T08:51:40.001Z</time></trkpt><trkpt lat="40.585410355544035" lon="9.692798351301887"><ele>42.0</ele><time>2026-04-30T08:51:41.001Z</time></trkpt><trkpt lat="40.58552834145396" lon="9.69271576952119"><ele>45.25</ele><time>2026-04-30T08:51:42.001Z</time></trkpt><trkpt lat="40.585651910562476" lon="9.692661736106286"><ele>48.5</ele><time>2026-04-30T08:51:43.001Z</time></trkpt><trkpt lat="40.585770492726006" lon="9.692627223124713"><ele>51.75</ele><time>2026-04-30T08:51:44.001Z</time></trkpt><trkpt lat="40.58588883659348" lon="9.69260767195494"><ele>55.0</ele><time>2026-04-30T08:51:45.001Z</time></trkpt><trkpt lat="40.58601512713276" lon="9.692573826021782"><ele>55.0</ele><time>2026-04-30T08:51:46.001Z</time></trkpt><trkpt lat="40.586139697351456" lon="9.692546002987315"><ele>55.0</ele><time>2026-04-30T08:51:47.001Z</time></trkpt><trkpt lat="40.586266072202854" lon="9.692517194600088"><ele>55.0</ele><time>2026-04-30T08:51:48.001Z</time></trkpt><trkpt lat="40.58639255458895" lon="9.692491300395016"><ele>55.0</ele><time>2026-04-30T08:51:49.001Z</time></trkpt><trkpt lat="40.58652545842127" lon="9.692457524813014"><ele>54.5</ele><time>2026-04-30T08:51:50.001Z</time></trkpt><trkpt lat="40.586664224131475" lon="9.692425241737855"><ele>54.0</ele><time>2026-04-30T08:51:51.001Z</time></trkpt><trkpt lat="40.58680427733044" lon="9.692395198798259"><ele>53.5</ele><time>2026-04-30T08:51:52.001Z</time></trkpt><trkpt lat="40.58694943299062" lon="9.692362022473462"><ele>53.0</ele><time>2026-04-30T08:51:53.001Z</time></trkpt><trkpt lat="40.58709061916505" lon="9.692323013325309"><ele>52.25</ele><time>2026-04-30T08:51:54.001Z</time></trkpt><trkpt lat="40.587234509247565" lon="9.692297160332329"><ele>51.5</ele><time>2026-04-30T08:51:55.001Z</time></trkpt><trkpt lat="40.58737117629262" lon="9.692289043460635"><ele>50.75</ele><time>2026-04-30T08:51:56.001Z</time></trkpt><trkpt lat="40.587502619620956" lon="9.692299428922983"><ele>50.0</ele><time>2026-04-30T08:51:57.001Z</time></trkpt><trkpt lat="40.587631908363676" lon="9.692328412626093"><ele>50.0</ele><time>2026-04-30T08:51:58.001Z</time></trkpt><trkpt lat="40.587756211370895" lon="9.69237899890084"><ele>50.0</ele><time>2026-04-30T08:51:59.001Z</time></trkpt><trkpt lat="40.58788270634846" lon="9.692438027569219"><ele>50.0</ele><time>2026-04-30T08:52:00.001Z</time></trkpt><trkpt lat="40.58800936004897" lon="9.692522136444241"><ele>50.0</ele><time>2026-04-30T08:52:01.001Z</time></trkpt><trkpt lat="40.58814699993883" lon="9.692612932319312"><ele>49.0</ele><time>2026-04-30T08:52:02.001Z</time></trkpt><trkpt lat="40.58828937643293" lon="9.692700557541752"><ele>48.0</ele><time>2026-04-30T08:52:03.001Z</time></trkpt><trkpt lat="40.58844265711381" lon="9.692778786828084"><ele>47.0</ele><time>2026-04-30T08:52:04.001Z</time></trkpt><trkpt lat="40.58859505287924" lon="9.692867677215839"><ele>48.33333333333333</ele><time>2026-04-30T08:52:05.001Z</time></trkpt><trkpt lat="40.58875777708302" lon="9.69294314061947"><ele>49.666666666666664</ele><time>2026-04-30T08:52:06.001Z</time></trkpt><trkpt lat="40.58892316356238" lon="9.693016508232004"><ele>51.0</ele><time>2026-04-30T08:52:07.001Z</time></trkpt><trkpt lat="40.58909097373138" lon="9.693080976766643"><ele>51.0</ele><time>2026-04-30T08:52:08.001Z</time></trkpt><trkpt lat="40.589260633050166" lon="9.693141079436955"><ele>51.0</ele><time>2026-04-30T08:52:09.001Z</time></trkpt><trkpt lat="40.58942713548548" lon="9.693196843241925"><ele>51.0</ele><time>2026-04-30T08:52:10.001Z</time></trkpt><trkpt lat="40.589591857107045" lon="9.693241531261448"><ele>50.66666666666667</ele><time>2026-04-30T08:52:11.001Z</time></trkpt><trkpt lat="40.58975423743423" lon="9.693275639879346"><ele>50.333333333333336</ele><time>2026-04-30T08:52:12.001Z</time></trkpt><trkpt lat="40.58991596245369" lon="9.693317396228906"><ele>50.0</ele><time>2026-04-30T08:52:13.002Z</time></trkpt><trkpt lat="40.59007569686472" lon="9.69335675025663"><ele>50.0</ele><time>2026-04-30T08:52:14.002Z</time></trkpt><trkpt lat="40.59022502567583" lon="9.69338779182955"><ele>50.0</ele><time>2026-04-30T08:52:15.002Z</time></trkpt><trkpt lat="40.59037118761783" lon="9.693415838976344"><ele>50.0</ele><time>2026-04-30T08:52:16.002Z</time></trkpt><trkpt lat="40.59051270869555" lon="9.69344217537747"><ele>50.0</ele><time>2026-04-30T08:52:17.002Z</time></trkpt><trkpt lat="40.590652986584814" lon="9.69347143107057"><ele>49.5</ele><time>2026-04-30T08:52:18.002Z</time></trkpt><trkpt lat="40.59079487156865" lon="9.693494977519086"><ele>49.0</ele><time>2026-04-30T08:52:19.002Z</time></trkpt><trkpt lat="40.59093785520348" lon="9.693519835915419"><ele>48.5</ele><time>2026-04-30T08:52:20.002Z</time></trkpt><trkpt lat="40.59108084759742" lon="9.693544625968226"><ele>48.0</ele><time>2026-04-30T08:52:21.002Z</time></trkpt><trkpt lat="40.591221972442945" lon="9.69357605657084"><ele>47.5</ele><time>2026-04-30T08:52:22.002Z</time></trkpt><trkpt lat="40.59136301463427" lon="9.693602372375194"><ele>47.0</ele><time>2026-04-30T08:52:23.002Z</time></trkpt><trkpt lat="40.591507314397745" lon="9.693628247094624"><ele>46.5</ele><time>2026-04-30T08:52:24.002Z</time></trkpt><trkpt lat="40.591650173731935" lon="9.69365617423721"><ele>46.0</ele><time>2026-04-30T08:52:25.002Z</time></trkpt><trkpt lat="40.59179374343412" lon="9.693680839900603"><ele>46.0</ele><time>2026-04-30T08:52:26.002Z</time></trkpt><trkpt lat="40.591936400913745" lon="9.693708453564271"><ele>46.0</ele><time>2026-04-30T08:52:27.002Z</time></trkpt><trkpt lat="40.59207600207724" lon="9.693733743276672"><ele>46.0</ele><time>2026-04-30T08:52:28.002Z</time></trkpt><trkpt lat="40.59221858370162" lon="9.693760052478195"><ele>46.0</ele><time>2026-04-30T08:52:29.002Z</time></trkpt><trkpt lat="40.5923616590919" lon="9.693786165691254"><ele>46.75</ele><time>2026-04-30T08:52:30.002Z</time></trkpt><trkpt lat="40.592508367320896" lon="9.693813892767398"><ele>47.5</ele><time>2026-04-30T08:52:31.002Z</time></trkpt><trkpt lat="40.59265580956316" lon="9.693834774644248"><ele>48.25</ele><time>2026-04-30T08:52:32.002Z</time></trkpt><trkpt lat="40.592802567609006" lon="9.693857088466158"><ele>49.0</ele><time>2026-04-30T08:52:33.002Z</time></trkpt><trkpt lat="40.59295328351906" lon="9.693871724460843"><ele>49.25</ele><time>2026-04-30T08:52:34.002Z</time></trkpt><trkpt lat="40.593101772574144" lon="9.693896724501565"><ele>49.5</ele><time>2026-04-30T08:52:35.002Z</time></trkpt><trkpt lat="40.59324860954637" lon="9.693906952310856"><ele>49.75</ele><time>2026-04-30T08:52:36.002Z</time></trkpt><trkpt lat="40.593393541910466" lon="9.693929209659064"><ele>50.0</ele><time>2026-04-30T08:52:37.002Z</time></trkpt><trkpt lat="40.59354209429867" lon="9.69394230078038"><ele>49.75</ele><time>2026-04-30T08:52:38.002Z</time></trkpt><trkpt lat="40.59368701563341" lon="9.693960073200252"><ele>49.5</ele><time>2026-04-30T08:52:39.002Z</time></trkpt><trkpt lat="40.59383531018224" lon="9.693980482613993"><ele>49.25</ele><time>2026-04-30T08:52:40.002Z</time></trkpt><trkpt lat="40.59398188578144" lon="9.693998131485342"><ele>49.0</ele><time>2026-04-30T08:52:41.002Z</time></trkpt><trkpt lat="40.59411766775991" lon="9.694019298137977"><ele>49.0</ele><time>2026-04-30T08:52:42.002Z</time></trkpt><trkpt lat="40.59423831476932" lon="9.694034445013758"><ele>49.0</ele><time>2026-04-30T08:52:43.002Z</time></trkpt><trkpt lat="40.59435460698106" lon="9.694041034106254"><ele>49.0</ele><time>2026-04-30T08:52:44.002Z</time></trkpt><trkpt lat="40.594466439766975" lon="9.694053601383493"><ele>49.0</ele><time>2026-04-30T08:52:45.002Z</time></trkpt><trkpt lat="40.59458987539965" lon="9.694061941561122"><ele>49.75</ele><time>2026-04-30T08:52:46.002Z</time></trkpt><trkpt lat="40.59471509124048" lon="9.694063084106691"><ele>50.5</ele><time>2026-04-30T08:52:47.002Z</time></trkpt><trkpt lat="40.59484795037489" lon="9.694071199149919"><ele>51.25</ele><time>2026-04-30T08:52:48.002Z</time></trkpt><trkpt lat="40.59498773972485" lon="9.694084079641364"><ele>52.0</ele><time>2026-04-30T08:52:49.002Z</time></trkpt><trkpt lat="40.59511510647287" lon="9.694106077551776"><ele>52.0</ele><time>2026-04-30T08:52:50.002Z</time></trkpt><trkpt lat="40.59525035325896" lon="9.694119618659936"><ele>52.0</ele><time>2026-04-30T08:52:51.002Z</time></trkpt><trkpt lat="40.595383129978444" lon="9.694134085619384"><ele>52.0</ele><time>2026-04-30T08:52:52.002Z</time></trkpt><trkpt lat="40.595520880763615" lon="9.694155685295119"><ele>52.0</ele><time>2026-04-30T08:52:53.002Z</time></trkpt><trkpt lat="40.59566771641561" lon="9.694176369040633"><ele>52.5</ele><time>2026-04-30T08:52:54.002Z</time></trkpt><trkpt lat="40.59581965139679" lon="9.69419137209108"><ele>53.0</ele><time>2026-04-30T08:52:55.002Z</time></trkpt><trkpt lat="40.59596645382886" lon="9.694209452294189"><ele>53.5</ele><time>2026-04-30T08:52:56.002Z</time></trkpt><trkpt lat="40.5961151813996" lon="9.694226137840102"><ele>54.0</ele><time>2026-04-30T08:52:57.002Z</time></trkpt><trkpt lat="40.596261430235174" lon="9.694243371172309"><ele>54.0</ele><time>2026-04-30T08:52:58.002Z</time></trkpt><trkpt lat="40.5964111014636" lon="9.694260220352275"><ele>54.0</ele><time>2026-04-30T08:52:59.002Z</time></trkpt><trkpt lat="40.59656694856771" lon="9.694271719440037"><ele>54.0</ele><time>2026-04-30T08:53:00.002Z</time></trkpt><trkpt lat="40.596721485882455" lon="9.694297606387881"><ele>54.0</ele><time>2026-04-30T08:53:01.002Z</time></trkpt><trkpt lat="40.596875675761076" lon="9.69431694089243"><ele>54.0</ele><time>2026-04-30T08:53:02.002Z</time></trkpt><trkpt lat="40.597035361834266" lon="9.694330926888384"><ele>54.0</ele><time>2026-04-30T08:53:03.002Z</time></trkpt><trkpt lat="40.59720103758713" lon="9.694345191546745"><ele>53.33333333333333</ele><time>2026-04-30T08:53:04.002Z</time></trkpt><trkpt lat="40.597368370568226" lon="9.694353128196502"><ele>52.666666666666664</ele><time>2026-04-30T08:53:05.002Z</time></trkpt><trkpt lat="40.59753022165222" lon="9.69437565492057"><ele>52.0</ele><time>2026-04-30T08:53:06.002Z</time></trkpt><trkpt lat="40.59770171581413" lon="9.69439563528001"><ele>50.666666666666664</ele><time>2026-04-30T08:53:07.002Z</time></trkpt><trkpt lat="40.59786384026469" lon="9.694420330864245"><ele>49.33333333333333</ele><time>2026-04-30T08:53:08.002Z</time></trkpt><trkpt lat="40.59803395673851" lon="9.694442715803994"><ele>48.0</ele><time>2026-04-30T08:53:09.002Z</time></trkpt><trkpt lat="40.598198138877756" lon="9.694464604295122"><ele>46.333333333333336</ele><time>2026-04-30T08:53:10.001Z</time></trkpt><trkpt lat="40.59837691475024" lon="9.694474204796718"><ele>44.66666666666667</ele><time>2026-04-30T08:53:11.001Z</time></trkpt><trkpt lat="40.598543587932106" lon="9.694502319659954"><ele>43.0</ele><time>2026-04-30T08:53:12.001Z</time></trkpt><trkpt lat="40.59871453251049" lon="9.694520289979913"><ele>41.66666666666667</ele><time>2026-04-30T08:53:13.001Z</time></trkpt><trkpt lat="40.59888398908595" lon="9.694541348566883"><ele>40.333333333333336</ele><time>2026-04-30T08:53:14Z</time></trkpt><trkpt lat="40.59904792412864" lon="9.694568438678397"><ele>39.0</ele><time>2026-04-30T08:53:15Z</time></trkpt><trkpt lat="40.59921217885822" lon="9.694592051215555"><ele>39.0</ele><time>2026-04-30T08:53:16.001Z</time></trkpt><trkpt lat="40.599369817246576" lon="9.694601731835418"><ele>39.0</ele><time>2026-04-30T08:53:17.001Z</time></trkpt><trkpt lat="40.59952044683169" lon="9.694620515755815"><ele>39.0</ele><time>2026-04-30T08:53:18.001Z</time></trkpt><trkpt lat="40.59966701368378" lon="9.694637995472688"><ele>38.333333333333336</ele><time>2026-04-30T08:53:19.001Z</time></trkpt><trkpt lat="40.59981664503893" lon="9.69465010774941"><ele>37.66666666666667</ele><time>2026-04-30T08:53:20.001Z</time></trkpt><trkpt lat="40.599967831412805" lon="9.694668376855002"><ele>37.0</ele><time>2026-04-30T08:53:21.001Z</time></trkpt><trkpt lat="40.600119250603406" lon="9.694690475603766"><ele>37.0</ele><time>2026-04-30T08:53:22Z</time></trkpt><trkpt lat="40.600272423816975" lon="9.694713994692206"><ele>37.0</ele><time>2026-04-30T08:53:23.001Z</time></trkpt><trkpt lat="40.60042460710424" lon="9.694743209404779"><ele>37.0</ele><time>2026-04-30T08:53:24.001Z</time></trkpt><trkpt lat="40.60058436063979" lon="9.694770305173957"><ele>36.333333333333336</ele><time>2026-04-30T08:53:25.001Z</time></trkpt><trkpt lat="40.60074974671371" lon="9.69481446003608"><ele>35.666666666666664</ele><time>2026-04-30T08:53:26.001Z</time></trkpt><trkpt lat="40.60091458788846" lon="9.69485741352407"><ele>35.0</ele><time>2026-04-30T08:53:27.001Z</time></trkpt><trkpt lat="40.6010783499902" lon="9.694900283478763"><ele>35.33333333333333</ele><time>2026-04-30T08:53:28.001Z</time></trkpt><trkpt lat="40.601245076413974" lon="9.69494529553497"><ele>35.666666666666664</ele><time>2026-04-30T08:53:29.001Z</time></trkpt><trkpt lat="40.60141208506617" lon="9.694994492640124"><ele>36.0</ele><time>2026-04-30T08:53:30.001Z</time></trkpt><trkpt lat="40.601573240132936" lon="9.69505048637625"><ele>36.0</ele><time>2026-04-30T08:53:31.001Z</time></trkpt><trkpt lat="40.60172778467089" lon="9.695106922865627"><ele>36.0</ele><time>2026-04-30T08:53:32.001Z</time></trkpt><trkpt lat="40.60188426619265" lon="9.69516946876256"><ele>36.0</ele><time>2026-04-30T08:53:33.001Z</time></trkpt><trkpt lat="40.60204001364659" lon="9.695239566938124"><ele>34.0</ele><time>2026-04-30T08:53:34.001Z</time></trkpt><trkpt lat="40.60220026360813" lon="9.695312663545366"><ele>32.0</ele><time>2026-04-30T08:53:35.001Z</time></trkpt><trkpt lat="40.602360626640106" lon="9.695394131359462"><ele>30.0</ele><time>2026-04-30T08:53:36.001Z</time></trkpt><trkpt lat="40.60252618038839" lon="9.695478488262017"><ele>30.0</ele><time>2026-04-30T08:53:37.001Z</time></trkpt><trkpt lat="40.60269286020658" lon="9.695568001831976"><ele>30.0</ele><time>2026-04-30T08:53:38.001Z</time></trkpt><trkpt lat="40.60286124816636" lon="9.695665797694131"><ele>30.0</ele><time>2026-04-30T08:53:39.001Z</time></trkpt><trkpt lat="40.60302864278945" lon="9.695761613378638"><ele>31.0</ele><time>2026-04-30T08:53:40.001Z</time></trkpt><trkpt lat="40.60319423594549" lon="9.69586554547858"><ele>32.0</ele><time>2026-04-30T08:53:41.001Z</time></trkpt><trkpt lat="40.603356358078834" lon="9.695970338276961"><ele>33.0</ele><time>2026-04-30T08:53:42.001Z</time></trkpt><trkpt lat="40.603517713719526" lon="9.696082408953442"><ele>33.0</ele><time>2026-04-30T08:53:43.001Z</time></trkpt><trkpt lat="40.60367709444307" lon="9.696201448388072"><ele>33.0</ele><time>2026-04-30T08:53:44.001Z</time></trkpt><trkpt lat="40.603834266087205" lon="9.696316281153884"><ele>33.0</ele><time>2026-04-30T08:53:45.001Z</time></trkpt><trkpt lat="40.60399298426061" lon="9.696444390496177"><ele>33.0</ele><time>2026-04-30T08:53:46.001Z</time></trkpt><trkpt lat="40.604147035412105" lon="9.696578154790517"><ele>33.0</ele><time>2026-04-30T08:53:47.001Z</time></trkpt><trkpt lat="40.604301168678205" lon="9.696714068501905"><ele>33.0</ele><time>2026-04-30T08:53:48.001Z</time></trkpt><trkpt lat="40.60445291963818" lon="9.69685621740842"><ele>33.333333333333336</ele><time>2026-04-30T08:53:49.001Z</time></trkpt><trkpt lat="40.60460310625726" lon="9.696998567893246"><ele>33.66666666666667</ele><time>2026-04-30T08:53:50.001Z</time></trkpt><trkpt lat="40.60475367209287" lon="9.6971475215672"><ele>34.0</ele><time>2026-04-30T08:53:51.001Z</time></trkpt><trkpt lat="40.60489754392876" lon="9.697307101097476"><ele>34.0</ele><time>2026-04-30T08:53:52.001Z</time></trkpt><trkpt lat="40.6050390801165" lon="9.69746092702272"><ele>34.0</ele><time>2026-04-30T08:53:53.001Z</time></trkpt><trkpt lat="40.60517679218459" lon="9.69762381941982"><ele>34.0</ele><time>2026-04-30T08:53:54.001Z</time></trkpt><trkpt lat="40.60531471068903" lon="9.697793129564905"><ele>34.333333333333336</ele><time>2026-04-30T08:53:55.001Z</time></trkpt><trkpt lat="40.60545272197009" lon="9.697959762718675"><ele>34.666666666666664</ele><time>2026-04-30T08:53:56.001Z</time></trkpt><trkpt lat="40.60559314732767" lon="9.698124167441609"><ele>35.0</ele><time>2026-04-30T08:53:57.001Z</time></trkpt><trkpt lat="40.60573273908196" lon="9.698291420226777"><ele>35.0</ele><time>2026-04-30T08:53:58.001Z</time></trkpt><trkpt lat="40.605873264819834" lon="9.698458979282691"><ele>35.0</ele><time>2026-04-30T08:53:59.001Z</time></trkpt><trkpt lat="40.6060106550073" lon="9.698620646491863"><ele>35.0</ele><time>2026-04-30T08:54:00.001Z</time></trkpt><trkpt lat="40.60614839892582" lon="9.698785386839136"><ele>36.33333333333333</ele><time>2026-04-30T08:54:01.001Z</time></trkpt><trkpt lat="40.606289908050655" lon="9.698954186740014"><ele>37.666666666666664</ele><time>2026-04-30T08:54:02.001Z</time></trkpt><trkpt lat="40.60643556108915" lon="9.69911990769877"><ele>39.0</ele><time>2026-04-30T08:54:03.001Z</time></trkpt><trkpt lat="40.60658279488065" lon="9.699289810289235"><ele>38.666666666666664</ele><time>2026-04-30T08:54:04.001Z</time></trkpt><trkpt lat="40.606729848353375" lon="9.69945952092304"><ele>38.33333333333333</ele><time>2026-04-30T08:54:05.001Z</time></trkpt><trkpt lat="40.60688136946476" lon="9.69963048706032"><ele>38.0</ele><time>2026-04-30T08:54:06.001Z</time></trkpt><trkpt lat="40.60703432387523" lon="9.699803726013679"><ele>38.0</ele><time>2026-04-30T08:54:07.001Z</time></trkpt><trkpt lat="40.60718765353837" lon="9.699976592668635"><ele>38.0</ele><time>2026-04-30T08:54:08.001Z</time></trkpt><trkpt lat="40.6073430009865" lon="9.700151958111483"><ele>38.0</ele><time>2026-04-30T08:54:09.001Z</time></trkpt><trkpt lat="40.607501167794204" lon="9.700324030817692"><ele>38.666666666666664</ele><time>2026-04-30T08:54:10.001Z</time></trkpt><trkpt lat="40.607663654235736" lon="9.700493574066936"><ele>39.333333333333336</ele><time>2026-04-30T08:54:11.001Z</time></trkpt><trkpt lat="40.607827830802364" lon="9.700662820494298"><ele>40.0</ele><time>2026-04-30T08:54:12.001Z</time></trkpt><trkpt lat="40.60799961572084" lon="9.700824180664076"><ele>40.0</ele><time>2026-04-30T08:54:13.001Z</time></trkpt><trkpt lat="40.60816766130825" lon="9.70098374681365"><ele>40.0</ele><time>2026-04-30T08:54:14.001Z</time></trkpt><trkpt lat="40.60834274130162" lon="9.701140359250715"><ele>40.0</ele><time>2026-04-30T08:54:15.001Z</time></trkpt><trkpt lat="40.60851546817122" lon="9.701286689242165"><ele>40.0</ele><time>2026-04-30T08:54:16.001Z</time></trkpt><trkpt lat="40.60868193373519" lon="9.701431280174187"><ele>40.0</ele><time>2026-04-30T08:54:17.001Z</time></trkpt><trkpt lat="40.60885001780909" lon="9.701576067412645"><ele>40.0</ele><time>2026-04-30T08:54:18.001Z</time></trkpt><trkpt lat="40.60902098490419" lon="9.701714095390804"><ele>40.0</ele><time>2026-04-30T08:54:19.001Z</time></trkpt><trkpt lat="40.609195254902936" lon="9.701854057041881"><ele>40.0</ele><time>2026-04-30T08:54:20.001Z</time></trkpt><trkpt lat="40.60937188346113" lon="9.701988931367275"><ele>40.0</ele><time>2026-04-30T08:54:21.001Z</time></trkpt><trkpt lat="40.609552507398284" lon="9.702120449400953"><ele>39.0</ele><time>2026-04-30T08:54:22.001Z</time></trkpt><trkpt lat="40.60973469536605" lon="9.70224676384648"><ele>38.0</ele><time>2026-04-30T08:54:23.002Z</time></trkpt><trkpt lat="40.60991662260167" lon="9.702364412054132"><ele>37.0</ele><time>2026-04-30T08:54:24.002Z</time></trkpt><trkpt lat="40.6100994199849" lon="9.702482004636256"><ele>37.0</ele><time>2026-04-30T08:54:25.002Z</time></trkpt><trkpt lat="40.610284159553984" lon="9.702597677693035"><ele>37.0</ele><time>2026-04-30T08:54:26.002Z</time></trkpt><trkpt lat="40.610476008125204" lon="9.702709995386076"><ele>37.0</ele><time>2026-04-30T08:54:27.002Z</time></trkpt><trkpt lat="40.61066732164718" lon="9.702823116827288"><ele>36.66666666666667</ele><time>2026-04-30T08:54:28.002Z</time></trkpt><trkpt lat="40.61086393279095" lon="9.7029291341788"><ele>36.333333333333336</ele><time>2026-04-30T08:54:29.002Z</time></trkpt><trkpt lat="40.61106407575273" lon="9.703030671514473"><ele>36.0</ele><time>2026-04-30T08:54:30.002Z</time></trkpt><trkpt lat="40.61126367341003" lon="9.703131118563613"><ele>36.0</ele><time>2026-04-30T08:54:31.002Z</time></trkpt><trkpt lat="40.611464911692764" lon="9.703233106470165"><ele>36.0</ele><time>2026-04-30T08:54:32.002Z</time></trkpt><trkpt lat="40.611669894203196" lon="9.703335234158313"><ele>36.0</ele><time>2026-04-30T08:54:33.002Z</time></trkpt><trkpt lat="40.6118713265449" lon="9.703436596969581"><ele>36.666666666666664</ele><time>2026-04-30T08:54:34.002Z</time></trkpt><trkpt lat="40.612077047867174" lon="9.703535435999665"><ele>37.33333333333333</ele><time>2026-04-30T08:54:35.002Z</time></trkpt><trkpt lat="40.612283396362784" lon="9.70364105785348"><ele>38.0</ele><time>2026-04-30T08:54:36.002Z</time></trkpt><trkpt lat="40.61249205786455" lon="9.703745893190044"><ele>36.0</ele><time>2026-04-30T08:54:37.002Z</time></trkpt><trkpt lat="40.61269988411194" lon="9.7038534909333"><ele>34.0</ele><time>2026-04-30T08:54:38.002Z</time></trkpt><trkpt lat="40.612912355073085" lon="9.703956472632505"><ele>34.0</ele><time>2026-04-30T08:54:39.002Z</time></trkpt><trkpt lat="40.61312979694091" lon="9.704052700821025"><ele>34.0</ele><time>2026-04-30T08:54:40.002Z</time></trkpt><trkpt lat="40.61334434121933" lon="9.704154337130804"><ele>34.0</ele><time>2026-04-30T08:54:41.002Z</time></trkpt><trkpt lat="40.613559406457235" lon="9.704256448953105"><ele>34.0</ele><time>2026-04-30T08:54:42.002Z</time></trkpt><trkpt lat="40.61377347671903" lon="9.704358512692286"><ele>33.5</ele><time>2026-04-30T08:54:43.002Z</time></trkpt><trkpt lat="40.613986173714906" lon="9.704461249663215"><ele>33.0</ele><time>2026-04-30T08:54:44.002Z</time></trkpt><trkpt lat="40.61419685968776" lon="9.704567574886921"><ele>33.0</ele><time>2026-04-30T08:54:45.002Z</time></trkpt><trkpt lat="40.61440356179269" lon="9.704677890296328"><ele>33.0</ele><time>2026-04-30T08:54:46.002Z</time></trkpt><trkpt lat="40.61460836241086" lon="9.70479855477005"><ele>33.0</ele><time>2026-04-30T08:54:47.002Z</time></trkpt><trkpt lat="40.614810020492484" lon="9.704925444206587"><ele>34.0</ele><time>2026-04-30T08:54:48.002Z</time></trkpt><trkpt lat="40.61501011961716" lon="9.705056149336688"><ele>35.0</ele><time>2026-04-30T08:54:49.002Z</time></trkpt><trkpt lat="40.61521051030424" lon="9.7051878636783"><ele>36.0</ele><time>2026-04-30T08:54:50.002Z</time></trkpt><trkpt lat="40.61540665488571" lon="9.705327903484728"><ele>36.0</ele><time>2026-04-30T08:54:51.002Z</time></trkpt><trkpt lat="40.615605119636996" lon="9.705470574843618"><ele>36.0</ele><time>2026-04-30T08:54:52.002Z</time></trkpt><trkpt lat="40.61580361483062" lon="9.705613336515775"><ele>36.0</ele><time>2026-04-30T08:54:53.002Z</time></trkpt><trkpt lat="40.61600035242059" lon="9.705759166855852"><ele>36.0</ele><time>2026-04-30T08:54:54.002Z</time></trkpt><trkpt lat="40.61619760847918" lon="9.705907318473137"><ele>35.0</ele><time>2026-04-30T08:54:55.002Z</time></trkpt><trkpt lat="40.616395215214396" lon="9.706055578216043"><ele>34.0</ele><time>2026-04-30T08:54:56.002Z</time></trkpt><trkpt lat="40.616590136187575" lon="9.706202538601675"><ele>34.0</ele><time>2026-04-30T08:54:57.002Z</time></trkpt><trkpt lat="40.6167860988377" lon="9.70634642274482"><ele>34.0</ele><time>2026-04-30T08:54:58.002Z</time></trkpt><trkpt lat="40.61697995531007" lon="9.70648834453179"><ele>34.0</ele><time>2026-04-30T08:54:59.002Z</time></trkpt><trkpt lat="40.61717184505371" lon="9.70662757989634"><ele>35.0</ele><time>2026-04-30T08:55:00.002Z</time></trkpt><trkpt lat="40.61736806703639" lon="9.706763278609165"><ele>36.0</ele><time>2026-04-30T08:55:01.002Z</time></trkpt><trkpt lat="40.61756495550054" lon="9.706895490283957"><ele>37.0</ele><time>2026-04-30T08:55:02.002Z</time></trkpt><trkpt lat="40.61776299694705" lon="9.707024550227366"><ele>35.0</ele><time>2026-04-30T08:55:03.002Z</time></trkpt><trkpt lat="40.6179636874381" lon="9.707145462907604"><ele>33.0</ele><time>2026-04-30T08:55:04.002Z</time></trkpt><trkpt lat="40.61817029271425" lon="9.707261593807138"><ele>31.0</ele><time>2026-04-30T08:55:05.002Z</time></trkpt><trkpt lat="40.61837395331814" lon="9.707367892951538"><ele>31.0</ele><time>2026-04-30T08:55:06.002Z</time></trkpt><trkpt lat="40.61858254593888" lon="9.707457980875917"><ele>31.0</ele><time>2026-04-30T08:55:07.002Z</time></trkpt><trkpt lat="40.61879752366336" lon="9.707539754954084"><ele>31.0</ele><time>2026-04-30T08:55:08.002Z</time></trkpt><trkpt lat="40.61901321647017" lon="9.70761318587258"><ele>30.666666666666668</ele><time>2026-04-30T08:55:09.002Z</time></trkpt><trkpt lat="40.61922952318209" lon="9.707677389228957"><ele>30.333333333333336</ele><time>2026-04-30T08:55:10.002Z</time></trkpt><trkpt lat="40.61945279368955" lon="9.707729877952467"><ele>30.0</ele><time>2026-04-30T08:55:11.002Z</time></trkpt><trkpt lat="40.619673581771494" lon="9.707774736021424"><ele>29.0</ele><time>2026-04-30T08:55:12.002Z</time></trkpt><trkpt lat="40.61988710065847" lon="9.707807563411626"><ele>28.0</ele><time>2026-04-30T08:55:13.002Z</time></trkpt><trkpt lat="40.62010309220441" lon="9.707830312240455"><ele>27.0</ele><time>2026-04-30T08:55:14.002Z</time></trkpt><trkpt lat="40.62032031900286" lon="9.707844685611796"><ele>27.0</ele><time>2026-04-30T08:55:15.002Z</time></trkpt><trkpt lat="40.620538014326506" lon="9.707849363353366"><ele>27.0</ele><time>2026-04-30T08:55:16.001Z</time></trkpt><trkpt lat="40.62075617363206" lon="9.707844399854977"><ele>27.0</ele><time>2026-04-30T08:55:17.001Z</time></trkpt><trkpt lat="40.62097708352813" lon="9.707825192573823"><ele>26.0</ele><time>2026-04-30T08:55:18.001Z</time></trkpt><trkpt lat="40.621198667440495" lon="9.707803328280855"><ele>25.0</ele><time>2026-04-30T08:55:19.001Z</time></trkpt><trkpt lat="40.62142075220417" lon="9.707769467702533"><ele>24.0</ele><time>2026-04-30T08:55:20.001Z</time></trkpt><trkpt lat="40.62164066224416" lon="9.707727164203781"><ele>26.0</ele><time>2026-04-30T08:55:21.001Z</time></trkpt><trkpt lat="40.621860797451816" lon="9.707677840606184"><ele>28.0</ele><time>2026-04-30T08:55:22.001Z</time></trkpt><trkpt lat="40.62207799370897" lon="9.707615795913666"><ele>30.0</ele><time>2026-04-30T08:55:23Z</time></trkpt><trkpt lat="40.62229612540262" lon="9.707538770433263"><ele>30.0</ele><time>2026-04-30T08:55:24Z</time></trkpt><trkpt lat="40.62250777373514" lon="9.707452658638632"><ele>30.0</ele><time>2026-04-30T08:55:25.001Z</time></trkpt><trkpt lat="40.62271783772907" lon="9.707355702356582"><ele>30.0</ele><time>2026-04-30T08:55:26.001Z</time></trkpt><trkpt lat="40.62292425358846" lon="9.7072535624697"><ele>28.333333333333336</ele><time>2026-04-30T08:55:27.001Z</time></trkpt><trkpt lat="40.62313015406356" lon="9.707144438426944"><ele>26.666666666666668</ele><time>2026-04-30T08:55:28Z</time></trkpt><trkpt lat="40.62333260124319" lon="9.707026199527741"><ele>25.0</ele><time>2026-04-30T08:55:29.001Z</time></trkpt><trkpt lat="40.62353329884217" lon="9.706900538380484"><ele>26.666666666666668</ele><time>2026-04-30T08:55:30.001Z</time></trkpt><trkpt lat="40.62372941104709" lon="9.706765515490815"><ele>28.333333333333336</ele><time>2026-04-30T08:55:31.001Z</time></trkpt><trkpt lat="40.62392305855807" lon="9.706621650743664"><ele>30.0</ele><time>2026-04-30T08:55:32.001Z</time></trkpt><trkpt lat="40.62411640658538" lon="9.706470624418404"><ele>30.0</ele><time>2026-04-30T08:55:33.001Z</time></trkpt><trkpt lat="40.62430880687482" lon="9.706314712543634"><ele>30.0</ele><time>2026-04-30T08:55:34.001Z</time></trkpt><trkpt lat="40.62450124131564" lon="9.7061597391722"><ele>30.0</ele><time>2026-04-30T08:55:35.001Z</time></trkpt><trkpt lat="40.62469373196859" lon="9.706004461497713"><ele>30.0</ele><time>2026-04-30T08:55:36.001Z</time></trkpt><trkpt lat="40.624882682096114" lon="9.705849582512176"><ele>30.0</ele><time>2026-04-30T08:55:37.001Z</time></trkpt><trkpt lat="40.625071982968734" lon="9.705693414414975"><ele>30.0</ele><time>2026-04-30T08:55:38.001Z</time></trkpt><trkpt lat="40.62525653880155" lon="9.70553961097496"><ele>30.0</ele><time>2026-04-30T08:55:39.001Z</time></trkpt><trkpt lat="40.62544215062336" lon="9.70538765483699"><ele>30.0</ele><time>2026-04-30T08:55:40.001Z</time></trkpt><trkpt lat="40.6256257429414" lon="9.705237790766859"><ele>28.0</ele><time>2026-04-30T08:55:41.001Z</time></trkpt><trkpt lat="40.62580409813392" lon="9.705092787825283"><ele>26.0</ele><time>2026-04-30T08:55:42.001Z</time></trkpt><trkpt lat="40.6259859243149" lon="9.704943046910778"><ele>24.0</ele><time>2026-04-30T08:55:43.001Z</time></trkpt><trkpt lat="40.626170321965795" lon="9.704794377571702"><ele>23.333333333333332</ele><time>2026-04-30T08:55:44.001Z</time></trkpt><trkpt lat="40.62634467033407" lon="9.70465509458077"><ele>22.666666666666664</ele><time>2026-04-30T08:55:45.001Z</time></trkpt><trkpt lat="40.6265126545276" lon="9.704520204229349"><ele>22.0</ele><time>2026-04-30T08:55:46.001Z</time></trkpt><trkpt lat="40.62667035897913" lon="9.704389475249831"><ele>23.0</ele><time>2026-04-30T08:55:47.001Z</time></trkpt><trkpt lat="40.62682573967" lon="9.704263102215224"><ele>24.0</ele><time>2026-04-30T08:55:48.001Z</time></trkpt><trkpt lat="40.62697811555944" lon="9.704137840647261"><ele>25.0</ele><time>2026-04-30T08:55:49.001Z</time></trkpt><trkpt lat="40.627130551031" lon="9.704014389016585"><ele>25.0</ele><time>2026-04-30T08:55:50.001Z</time></trkpt><trkpt lat="40.62728645835275" lon="9.703885333323456"><ele>25.0</ele><time>2026-04-30T08:55:51.001Z</time></trkpt><trkpt lat="40.627442293960996" lon="9.703758677792749"><ele>25.0</ele><time>2026-04-30T08:55:52.001Z</time></trkpt><trkpt lat="40.62759888110715" lon="9.703646730346428"><ele>25.0</ele><time>2026-04-30T08:55:53.001Z</time></trkpt><trkpt lat="40.62774606057943" lon="9.7035485972208"><ele>25.0</ele><time>2026-04-30T08:55:54.001Z</time></trkpt><trkpt lat="40.62789327081807" lon="9.703453565282436"><ele>25.0</ele><time>2026-04-30T08:55:55.001Z</time></trkpt><trkpt lat="40.6280410024252" lon="9.703370821560055"><ele>23.75</ele><time>2026-04-30T08:55:56.001Z</time></trkpt><trkpt lat="40.628179725134615" lon="9.703293836345184"><ele>22.5</ele><time>2026-04-30T08:55:57.001Z</time></trkpt><trkpt lat="40.628319265248884" lon="9.703223846318796"><ele>21.25</ele><time>2026-04-30T08:55:58.001Z</time></trkpt><trkpt lat="40.62845193318923" lon="9.703152783557474"><ele>20.0</ele><time>2026-04-30T08:55:59.001Z</time></trkpt><trkpt lat="40.628580540500224" lon="9.703085094543662"><ele>18.5</ele><time>2026-04-30T08:56:00.001Z</time></trkpt><trkpt lat="40.628710643464835" lon="9.703024416626695"><ele>17.0</ele><time>2026-04-30T08:56:01.001Z</time></trkpt><trkpt lat="40.62884226333794" lon="9.702960883488775"><ele>15.5</ele><time>2026-04-30T08:56:02.001Z</time></trkpt><trkpt lat="40.628967125584694" lon="9.702900959769984"><ele>14.0</ele><time>2026-04-30T08:56:03.001Z</time></trkpt><trkpt lat="40.629088225160665" lon="9.702849284206856"><ele>14.0</ele><time>2026-04-30T08:56:04.001Z</time></trkpt><trkpt lat="40.629200328861984" lon="9.702806866775475"><ele>13.999999999999998</ele><time>2026-04-30T08:56:05.001Z</time></trkpt><trkpt lat="40.6293106957306" lon="9.702771980585226"><ele>13.999999999999998</ele><time>2026-04-30T08:56:06.001Z</time></trkpt><trkpt lat="40.62941492443575" lon="9.702748965182268"><ele>14.0</ele><time>2026-04-30T08:56:07.001Z</time></trkpt><trkpt lat="40.62951895832589" lon="9.70275563511445"><ele>14.0</ele><time>2026-04-30T08:56:08.001Z</time></trkpt><trkpt lat="40.629612282339956" lon="9.702789639141068"><ele>12.75</ele><time>2026-04-30T08:56:09.001Z</time></trkpt><trkpt lat="40.62970726084054" lon="9.702842077208006"><ele>11.5</ele><time>2026-04-30T08:56:10.001Z</time></trkpt><trkpt lat="40.62977974729771" lon="9.702939021085056"><ele>10.25</ele><time>2026-04-30T08:56:11.001Z</time></trkpt><trkpt lat="40.629861125114566" lon="9.703067795577027"><ele>9.0</ele><time>2026-04-30T08:56:12.001Z</time></trkpt><trkpt lat="40.62992918297549" lon="9.703230084797918"><ele>9.0</ele><time>2026-04-30T08:56:13.001Z</time></trkpt><trkpt lat="40.63004531607566" lon="9.703373850551191"><ele>9.0</ele><time>2026-04-30T08:56:14.001Z</time></trkpt><trkpt lat="40.63015618015724" lon="9.70353425061203"><ele>9.0</ele><time>2026-04-30T08:56:15.001Z</time></trkpt><trkpt lat="40.63027903551515" lon="9.703669666768054"><ele>9.25</ele><time>2026-04-30T08:56:16.001Z</time></trkpt><trkpt lat="40.63042673161217" lon="9.703687031725398"><ele>9.5</ele><time>2026-04-30T08:56:17.001Z</time></trkpt><trkpt lat="40.63054358874441" lon="9.703676071774492"><ele>9.75</ele><time>2026-04-30T08:56:18.001Z</time></trkpt><trkpt lat="40.6303880176236" lon="9.70364924878806"><ele>10.0</ele><time>2026-04-30T08:56:19.001Z</time></trkpt><trkpt lat="40.6304973647984" lon="9.703642205178976"><ele>10.0</ele><time>2026-04-30T08:56:20.001Z</time></trkpt><trkpt lat="40.63059979833373" lon="9.703602839873062"><ele>10.0</ele><time>2026-04-30T08:56:21.001Z</time></trkpt><trkpt lat="40.63069212693092" lon="9.703533576943586"><ele>10.0</ele><time>2026-04-30T08:56:22.001Z</time></trkpt><trkpt lat="40.6307717144338" lon="9.703435898082223"><ele>10.0</ele><time>2026-04-30T08:56:23.001Z</time></trkpt><trkpt lat="40.63082964604515" lon="9.703313610579062"><ele>10.0</ele><time>2026-04-30T08:56:24.001Z</time></trkpt><trkpt lat="40.63086969163485" lon="9.703174853306912"><ele>9.5</ele><time>2026-04-30T08:56:25.001Z</time></trkpt><trkpt lat="40.63089004722739" lon="9.703019485439668"><ele>9.0</ele><time>2026-04-30T08:56:26.001Z</time></trkpt><trkpt lat="40.630894652346846" lon="9.70285212300419"><ele>8.5</ele><time>2026-04-30T08:56:27.001Z</time></trkpt><trkpt lat="40.63088655832908" lon="9.70267694780856"><ele>8.0</ele><time>2026-04-30T08:56:28.001Z</time></trkpt><trkpt lat="40.63087237783899" lon="9.702493349366371"><ele>7.75</ele><time>2026-04-30T08:56:29.001Z</time></trkpt><trkpt lat="40.630858545092195" lon="9.702309338269558"><ele>7.5</ele><time>2026-04-30T08:56:30.001Z</time></trkpt><trkpt lat="40.630844237668256" lon="9.702133726799069"><ele>7.25</ele><time>2026-04-30T08:56:31.001Z</time></trkpt><trkpt lat="40.630827484360864" lon="9.701942206550767"><ele>7.0</ele><time>2026-04-30T08:56:32.001Z</time></trkpt><trkpt lat="40.63081205993959" lon="9.701743014745006"><ele>7.0</ele><time>2026-04-30T08:56:33.002Z</time></trkpt><trkpt lat="40.63079626684134" lon="9.701547497276595"><ele>7.0</ele><time>2026-04-30T08:56:34.002Z</time></trkpt><trkpt lat="40.630778678075956" lon="9.701340611293473"><ele>7.0</ele><time>2026-04-30T08:56:35.002Z</time></trkpt><trkpt lat="40.630761543796545" lon="9.70114261155024"><ele>6.75</ele><time>2026-04-30T08:56:36.002Z</time></trkpt><trkpt lat="40.6307453374287" lon="9.700944949555296"><ele>6.5</ele><time>2026-04-30T08:56:37.002Z</time></trkpt><trkpt lat="40.63072751047338" lon="9.700753421726391"><ele>6.25</ele><time>2026-04-30T08:56:38.002Z</time></trkpt><trkpt lat="40.630708409634614" lon="9.700570514016773"><ele>6.0</ele><time>2026-04-30T08:56:39.002Z</time></trkpt><trkpt lat="40.6306819982393" lon="9.700404351689365"><ele>6.0</ele><time>2026-04-30T08:56:40.002Z</time></trkpt><trkpt lat="40.63064758070918" lon="9.700266432912438"><ele>6.0</ele><time>2026-04-30T08:56:41.002Z</time></trkpt><trkpt lat="40.630601567544616" lon="9.70014812390497"><ele>6.0</ele><time>2026-04-30T08:56:42.002Z</time></trkpt><trkpt lat="40.63051792934288" lon="9.700049570206927"><ele>6.0</ele><time>2026-04-30T08:56:43.002Z</time></trkpt><trkpt lat="40.630444437000165" lon="9.699965307168183"><ele>6.0</ele><time>2026-04-30T08:56:44.002Z</time></trkpt><trkpt lat="40.63035148200717" lon="9.699891033579245"><ele>6.833333333333333</ele><time>2026-04-30T08:56:45.002Z</time></trkpt><trkpt lat="40.63025847198805" lon="9.699831321418447"><ele>7.666666666666666</ele><time>2026-04-30T08:56:46.002Z</time></trkpt><trkpt lat="40.630184201043015" lon="9.699776767065165"><ele>8.5</ele><time>2026-04-30T08:56:47.002Z</time></trkpt><trkpt lat="40.63012449599018" lon="9.69971077239045"><ele>9.333333333333332</ele><time>2026-04-30T08:56:48.002Z</time></trkpt><trkpt lat="40.6300797975814" lon="9.699634508996295"><ele>10.166666666666666</ele><time>2026-04-30T08:56:49.002Z</time></trkpt><trkpt lat="40.63004540672804" lon="9.699546035698257"><ele>11.0</ele><time>2026-04-30T08:56:50.002Z</time></trkpt><trkpt lat="40.630025472724945" lon="9.699436733222074"><ele>11.200000000000001</ele><time>2026-04-30T08:56:51.002Z</time></trkpt><trkpt lat="40.6300146236168" lon="9.69930662923983"><ele>11.4</ele><time>2026-04-30T08:56:52.002Z</time></trkpt><trkpt lat="40.63002913439298" lon="9.699178027462645"><ele>11.6</ele><time>2026-04-30T08:56:53.002Z</time></trkpt><trkpt lat="40.63005740003858" lon="9.699033001669587"><ele>11.8</ele><time>2026-04-30T08:56:54.002Z</time></trkpt><trkpt lat="40.63007210824513" lon="9.69888014550509"><ele>12.0</ele><time>2026-04-30T08:56:55.002Z</time></trkpt><trkpt lat="40.630130740191056" lon="9.698719697185988"><ele>12.0</ele><time>2026-04-30T08:56:56.002Z</time></trkpt><trkpt lat="40.63017263371954" lon="9.698551733295535"><ele>12.0</ele><time>2026-04-30T08:56:57.002Z</time></trkpt><trkpt lat="40.6302115076775" lon="9.698378064750404"><ele>12.0</ele><time>2026-04-30T08:56:58.002Z</time></trkpt><trkpt lat="40.6302518245839" lon="9.698204469160357"><ele>12.0</ele><time>2026-04-30T08:56:59.002Z</time></trkpt><trkpt lat="40.630294277751766" lon="9.698029542087852"><ele>11.0</ele><time>2026-04-30T08:57:00.002Z</time></trkpt><trkpt lat="40.63034024858294" lon="9.697860559453916"><ele>10.0</ele><time>2026-04-30T08:57:01.002Z</time></trkpt><trkpt lat="40.630387938838695" lon="9.69768851808827"><ele>9.0</ele><time>2026-04-30T08:57:02.002Z</time></trkpt><trkpt lat="40.630434743083434" lon="9.697517553988268"><ele>8.0</ele><time>2026-04-30T08:57:03.002Z</time></trkpt><trkpt lat="40.630480342416696" lon="9.697347707672838"><ele>8.0</ele><time>2026-04-30T08:57:04.002Z</time></trkpt><trkpt lat="40.630526365784824" lon="9.697173782348141"><ele>8.0</ele><time>2026-04-30T08:57:05.002Z</time></trkpt><trkpt lat="40.63057422142907" lon="9.69700191989966"><ele>8.0</ele><time>2026-04-30T08:57:06.002Z</time></trkpt><trkpt lat="40.63062159409722" lon="9.69682785046005"><ele>8.0</ele><time>2026-04-30T08:57:07.002Z</time></trkpt><trkpt lat="40.63066932810991" lon="9.696653526982429"><ele>7.75</ele><time>2026-04-30T08:57:08.002Z</time></trkpt><trkpt lat="40.630718232959595" lon="9.69647616285474"><ele>7.5</ele><time>2026-04-30T08:57:09.002Z</time></trkpt><trkpt lat="40.630768784928996" lon="9.696295598046452"><ele>7.25</ele><time>2026-04-30T08:57:10.002Z</time></trkpt><trkpt lat="40.630816029226246" lon="9.696111780775723"><ele>7.0</ele><time>2026-04-30T08:57:11.002Z</time></trkpt><trkpt lat="40.630855638050164" lon="9.695920581214866"><ele>6.75</ele><time>2026-04-30T08:57:12.002Z</time></trkpt><trkpt lat="40.630891884598476" lon="9.69573303590093"><ele>6.5</ele><time>2026-04-30T08:57:13.002Z</time></trkpt><trkpt lat="40.63091603496086" lon="9.695540504080777"><ele>6.25</ele><time>2026-04-30T08:57:14.002Z</time></trkpt><trkpt lat="40.63093769382073" lon="9.695341124812357"><ele>6.0</ele><time>2026-04-30T08:57:15.002Z</time></trkpt><trkpt lat="40.63095105764839" lon="9.695141966244492"><ele>6.0</ele><time>2026-04-30T08:57:16.002Z</time></trkpt><trkpt lat="40.630967948199626" lon="9.694940921998324"><ele>6.0</ele><time>2026-04-30T08:57:17.002Z</time></trkpt><trkpt lat="40.63098314296633" lon="9.694740133172663"><ele>6.0</ele><time>2026-04-30T08:57:18.002Z</time></trkpt><trkpt lat="40.63099838322033" lon="9.694537550483094"><ele>6.0</ele><time>2026-04-30T08:57:19.002Z</time></trkpt><trkpt lat="40.63100980046299" lon="9.694329686184478"><ele>6.0</ele><time>2026-04-30T08:57:20.002Z</time></trkpt><trkpt lat="40.63102538779381" lon="9.69412730097375"><ele>6.0</ele><time>2026-04-30T08:57:21.002Z</time></trkpt><trkpt lat="40.63104058407697" lon="9.693920604389914"><ele>6.0</ele><time>2026-04-30T08:57:22.001Z</time></trkpt><trkpt lat="40.63105734242165" lon="9.693717788853435"><ele>6.0</ele><time>2026-04-30T08:57:23.001Z</time></trkpt><trkpt lat="40.6310694876721" lon="9.693521402020943"><ele>6.0</ele><time>2026-04-30T08:57:24.001Z</time></trkpt><trkpt lat="40.63109056691049" lon="9.69332816931657"><ele>6.333333333333334</ele><time>2026-04-30T08:57:25.001Z</time></trkpt><trkpt lat="40.63110376892768" lon="9.693134035102966"><ele>6.666666666666667</ele><time>2026-04-30T08:57:26Z</time></trkpt><trkpt lat="40.63110564770774" lon="9.69293779959289"><ele>7.0</ele><time>2026-04-30T08:57:27Z</time></trkpt><trkpt lat="40.631090854846164" lon="9.69273616242075"><ele>6.0</ele><time>2026-04-30T08:57:28.001Z</time></trkpt><trkpt lat="40.63105978898619" lon="9.69253148401424"><ele>5.0</ele><time>2026-04-30T08:57:29Z</time></trkpt><trkpt lat="40.63102417394541" lon="9.692330349361642"><ele>4.0</ele><time>2026-04-30T08:57:30Z</time></trkpt><trkpt lat="40.63098395140842" lon="9.692127321074969"><ele>3.6666666666666665</ele><time>2026-04-30T08:57:31.001Z</time></trkpt><trkpt lat="40.630934118909956" lon="9.691918210670634"><ele>3.333333333333333</ele><time>2026-04-30T08:57:32Z</time></trkpt><trkpt lat="40.63088352190821" lon="9.69170149721808"><ele>3.0</ele><time>2026-04-30T08:57:33Z</time></trkpt><trkpt lat="40.63083348100311" lon="9.691481525894558"><ele>3.0</ele><time>2026-04-30T08:57:34.001Z</time></trkpt><trkpt lat="40.63078680261005" lon="9.691265882364771"><ele>3.0</ele><time>2026-04-30T08:57:35Z</time></trkpt><trkpt lat="40.630739607997214" lon="9.691049239718785"><ele>3.0</ele><time>2026-04-30T08:57:36Z</time></trkpt><trkpt lat="40.63068131906719" lon="9.690828014244476"><ele>3.0</ele><time>2026-04-30T08:57:37Z</time></trkpt><trkpt lat="40.63063380624349" lon="9.69060643364639"><ele>3.0</ele><time>2026-04-30T08:57:38Z</time></trkpt><trkpt lat="40.63058247064645" lon="9.690382438823665"><ele>3.0</ele><time>2026-04-30T08:57:39Z</time></trkpt><trkpt lat="40.6305403687438" lon="9.690168964063183"><ele>3.333333333333333</ele><time>2026-04-30T08:57:40Z</time></trkpt><trkpt lat="40.63048787830778" lon="9.689947520119905"><ele>3.6666666666666665</ele><time>2026-04-30T08:57:41Z</time></trkpt><trkpt lat="40.630442137298616" lon="9.689729679280388"><ele>4.0</ele><time>2026-04-30T08:57:42Z</time></trkpt><trkpt lat="40.63039228605898" lon="9.68951119629624"><ele>4.0</ele><time>2026-04-30T08:57:43Z</time></trkpt><trkpt lat="40.6303442829773" lon="9.689295336930217"><ele>4.0</ele><time>2026-04-30T08:57:44Z</time></trkpt><trkpt lat="40.63029370886838" lon="9.689076968973694"><ele>4.0</ele><time>2026-04-30T08:57:45Z</time></trkpt><trkpt lat="40.630245204731956" lon="9.688861576076478"><ele>4.666666666666666</ele><time>2026-04-30T08:57:46Z</time></trkpt><trkpt lat="40.63019006721228" lon="9.688643978712996"><ele>5.333333333333333</ele><time>2026-04-30T08:57:47Z</time></trkpt><trkpt lat="40.63014313484294" lon="9.688432445112136"><ele>6.0</ele><time>2026-04-30T08:57:48Z</time></trkpt><trkpt lat="40.63010341074664" lon="9.6882293900528"><ele>6.0</ele><time>2026-04-30T08:57:49Z</time></trkpt><trkpt lat="40.63005762322902" lon="9.688034267114178"><ele>6.0</ele><time>2026-04-30T08:57:50Z</time></trkpt><trkpt lat="40.63001092980569" lon="9.687838162374296"><ele>6.0</ele><time>2026-04-30T08:57:51Z</time></trkpt><trkpt lat="40.62997031941322" lon="9.687641770287225"><ele>6.666666666666666</ele><time>2026-04-30T08:57:52Z</time></trkpt><trkpt lat="40.62992805671765" lon="9.687445357402018"><ele>7.333333333333333</ele><time>2026-04-30T08:57:53Z</time></trkpt><trkpt lat="40.629892336681046" lon="9.687250039291628"><ele>8.0</ele><time>2026-04-30T08:57:54Z</time></trkpt><trkpt lat="40.629865926241465" lon="9.687051119228533"><ele>7.333333333333333</ele><time>2026-04-30T08:57:55Z</time></trkpt><trkpt lat="40.62985099780259" lon="9.686849754352847"><ele>6.666666666666666</ele><time>2026-04-30T08:57:56Z</time></trkpt><trkpt lat="40.629844345135304" lon="9.686650189866013"><ele>6.0</ele><time>2026-04-30T08:57:57Z</time></trkpt><trkpt lat="40.62984046953061" lon="9.686446187375436"><ele>6.0</ele><time>2026-04-30T08:57:58.001Z</time></trkpt><trkpt lat="40.629835554908524" lon="9.68623072105654"><ele>6.0</ele><time>2026-04-30T08:57:59.001Z</time></trkpt><trkpt lat="40.629826983651824" lon="9.686014249197287"><ele>6.0</ele><time>2026-04-30T08:58:00.001Z</time></trkpt><trkpt lat="40.62982087762461" lon="9.685793971944621"><ele>6.0</ele><time>2026-04-30T08:58:01.001Z</time></trkpt><trkpt lat="40.62981090165659" lon="9.68557793823707"><ele>6.0</ele><time>2026-04-30T08:58:02.001Z</time></trkpt><trkpt lat="40.629808662138316" lon="9.685382058824372"><ele>6.0</ele><time>2026-04-30T08:58:03.001Z</time></trkpt><trkpt lat="40.6298038898023" lon="9.685199669783099"><ele>6.0</ele><time>2026-04-30T08:58:04.001Z</time></trkpt><trkpt lat="40.629800679244866" lon="9.685030640452192"><ele>6.0</ele><time>2026-04-30T08:58:05.001Z</time></trkpt><trkpt lat="40.62979508993063" lon="9.684874686623031"><ele>6.0</ele><time>2026-04-30T08:58:06.001Z</time></trkpt><trkpt lat="40.62979674355743" lon="9.68473297678557"><ele>6.0</ele><time>2026-04-30T08:58:07.001Z</time></trkpt><trkpt lat="40.62979565319093" lon="9.684578424550299"><ele>6.25</ele><time>2026-04-30T08:58:08.001Z</time></trkpt><trkpt lat="40.629791349300646" lon="9.684416081679231"><ele>6.5</ele><time>2026-04-30T08:58:09.001Z</time></trkpt><trkpt lat="40.629787747855794" lon="9.684258662680227"><ele>6.75</ele><time>2026-04-30T08:58:10.001Z</time></trkpt><trkpt lat="40.629784522843984" lon="9.684092071512397"><ele>7.0</ele><time>2026-04-30T08:58:11.001Z</time></trkpt><trkpt lat="40.62979193333113" lon="9.68393877955466"><ele>7.0</ele><time>2026-04-30T08:58:12.001Z</time></trkpt><trkpt lat="40.62977541158261" lon="9.68377586653049"><ele>6.999999999999999</ele><time>2026-04-30T08:58:13.001Z</time></trkpt><trkpt lat="40.62978203089306" lon="9.683633723960687"><ele>6.999999999999999</ele><time>2026-04-30T08:58:14.001Z</time></trkpt><trkpt lat="40.62977595298705" lon="9.683496746525586"><ele>7.0</ele><time>2026-04-30T08:58:15.001Z</time></trkpt><trkpt lat="40.62977359227787" lon="9.683365934043648"><ele>7.0</ele><time>2026-04-30T08:58:16.001Z</time></trkpt><trkpt lat="40.62976882902457" lon="9.683229131602218"><ele>7.000000000000001</ele><time>2026-04-30T08:58:17.001Z</time></trkpt><trkpt lat="40.62977181023342" lon="9.683097759886833"><ele>7.0</ele><time>2026-04-30T08:58:18.001Z</time></trkpt><trkpt lat="40.62976744591184" lon="9.682966845575272"><ele>7.0</ele><time>2026-04-30T08:58:19.001Z</time></trkpt><trkpt lat="40.62976729924099" lon="9.682849177349942"><ele>7.0</ele><time>2026-04-30T08:58:20.001Z</time></trkpt><trkpt lat="40.62976774934181" lon="9.682737473677134"><ele>7.000000000000001</ele><time>2026-04-30T08:58:21.001Z</time></trkpt><trkpt lat="40.6297709502892" lon="9.682654610514415"><ele>7.0</ele><time>2026-04-30T08:58:22.001Z</time></trkpt><trkpt lat="40.629756660123206" lon="9.682500214708254"><ele>7.3999999999999995</ele><time>2026-04-30T08:58:24.001Z</time></trkpt><trkpt lat="40.62975473646992" lon="9.682416206172752"><ele>7.799999999999999</ele><time>2026-04-30T08:58:26.001Z</time></trkpt><trkpt lat="40.62957441321442" lon="9.68239008591957"><ele>8.2</ele><time>2026-04-30T08:58:32.001Z</time></trkpt><trkpt lat="40.62945286258916" lon="9.682404934708954"><ele>8.6</ele><time>2026-04-30T08:58:34.001Z</time></trkpt><trkpt lat="40.62937436724349" lon="9.682392844012739"><ele>9.0</ele><time>2026-04-30T08:58:36.001Z</time></trkpt><trkpt lat="40.62935855071469" lon="9.682254585327868"><ele>9.4</ele><time>2026-04-30T08:58:37.001Z</time></trkpt><trkpt lat="40.62929724157848" lon="9.68208975630883"><ele>9.8</ele><time>2026-04-30T08:58:39.001Z</time></trkpt><trkpt lat="40.62926785731545" lon="9.68199579503367"><ele>10.200000000000001</ele><time>2026-04-30T08:58:40.001Z</time></trkpt><trkpt lat="40.62925670858935" lon="9.681907048710158"><ele>10.600000000000001</ele><time>2026-04-30T08:58:41.001Z</time></trkpt><trkpt lat="40.62920296367409" lon="9.681800608009661"><ele>11.0</ele><time>2026-04-30T08:58:43.001Z</time></trkpt><trkpt lat="40.629147384361694" lon="9.681655147749558"><ele>11.0</ele><time>2026-04-30T08:58:45.001Z</time></trkpt><trkpt lat="40.629114102384946" lon="9.681569708971852"><ele>11.0</ele><time>2026-04-30T08:58:46.001Z</time></trkpt><trkpt lat="40.629081681426165" lon="9.681486911306745"><ele>11.0</ele><time>2026-04-30T08:58:47.001Z</time></trkpt><trkpt lat="40.62904817584759" lon="9.681401169683353"><ele>11.0</ele><time>2026-04-30T08:58:48.001Z</time></trkpt><trkpt lat="40.629010688219275" lon="9.681304717479266"><ele>11.0</ele><time>2026-04-30T08:58:49.001Z</time></trkpt><trkpt lat="40.62897466875934" lon="9.68119529852314"><ele>11.0</ele><time>2026-04-30T08:58:50.001Z</time></trkpt><trkpt lat="40.628957318162385" lon="9.68108578094449"><ele>11.0</ele><time>2026-04-30T08:58:51.001Z</time></trkpt><trkpt lat="40.62892015910618" lon="9.680999290801058"><ele>11.0</ele><time>2026-04-30T08:58:52.001Z</time></trkpt><trkpt lat="40.628850184681454" lon="9.68091578964356"><ele>11.0</ele><time>2026-04-30T08:58:53.001Z</time></trkpt><trkpt lat="40.6287859994921" lon="9.680839889872443"><ele>11.0</ele><time>2026-04-30T08:58:54.001Z</time></trkpt><trkpt lat="40.62872937062652" lon="9.680767271920027"><ele>11.0</ele><time>2026-04-30T08:58:55.001Z</time></trkpt><trkpt lat="40.62864574514317" lon="9.680683380606736"><ele>11.0</ele><time>2026-04-30T08:58:57.001Z</time></trkpt><trkpt lat="40.62859880369104" lon="9.680618221132747"><ele>11.25</ele><time>2026-04-30T08:58:59.001Z</time></trkpt><trkpt lat="40.62848083518411" lon="9.680694678257982"><ele>11.5</ele><time>2026-04-30T08:59:01.001Z</time></trkpt><trkpt lat="40.62836494909771" lon="9.680736217000302"><ele>11.75</ele><time>2026-04-30T08:59:03.001Z</time></trkpt><trkpt lat="40.62824120958303" lon="9.680786551468255"><ele>12.0</ele><time>2026-04-30T08:59:05.001Z</time></trkpt><trkpt lat="40.62817362777753" lon="9.68081720506289"><ele>12.0</ele><time>2026-04-30T08:59:06.001Z</time></trkpt><trkpt lat="40.62809259905828" lon="9.68084046402622"><ele>12.0</ele><time>2026-04-30T08:59:07.002Z</time></trkpt><trkpt lat="40.62801988455943" lon="9.68085416339665"><ele>12.0</ele><time>2026-04-30T08:59:08.002Z</time></trkpt><trkpt lat="40.627938196305294" lon="9.680858789658915"><ele>12.0</ele><time>2026-04-30T08:59:09.002Z</time></trkpt><trkpt lat="40.627849815620856" lon="9.6808276765043"><ele>12.0</ele><time>2026-04-30T08:59:10.002Z</time></trkpt><trkpt lat="40.627749349530085" lon="9.680813571829601"><ele>12.0</ele><time>2026-04-30T08:59:11.002Z</time></trkpt><trkpt lat="40.62764403974279" lon="9.680786312153442"><ele>12.6</ele><time>2026-04-30T08:59:12.002Z</time></trkpt><trkpt lat="40.62753947485751" lon="9.680756665287458"><ele>13.2</ele><time>2026-04-30T08:59:13.002Z</time></trkpt><trkpt lat="40.627433695785584" lon="9.680721902238776"><ele>13.8</ele><time>2026-04-30T08:59:14.002Z</time></trkpt><trkpt lat="40.62733650703821" lon="9.680687511063784"><ele>14.4</ele><time>2026-04-30T08:59:15.002Z</time></trkpt><trkpt lat="40.62723183655552" lon="9.6806568441146"><ele>15.0</ele><time>2026-04-30T08:59:16.002Z</time></trkpt><trkpt lat="40.62713719229635" lon="9.680627920667325"><ele>15.0</ele><time>2026-04-30T08:59:17.002Z</time></trkpt><trkpt lat="40.627046143264295" lon="9.68059435491001"><ele>15.0</ele><time>2026-04-30T08:59:18.002Z</time></trkpt><trkpt lat="40.62695861825871" lon="9.680526662560743"><ele>15.0</ele><time>2026-04-30T08:59:19.002Z</time></trkpt><trkpt lat="40.626873028877775" lon="9.680485304870416"><ele>15.0</ele><time>2026-04-30T08:59:20.002Z</time></trkpt><trkpt lat="40.626792695344264" lon="9.68045155964243"><ele>15.0</ele><time>2026-04-30T08:59:21.002Z</time></trkpt><trkpt lat="40.626711008326645" lon="9.680446544608216"><ele>15.2</ele><time>2026-04-30T08:59:22.002Z</time></trkpt><trkpt lat="40.62661966525545" lon="9.680432842797591"><ele>15.4</ele><time>2026-04-30T08:59:23.002Z</time></trkpt><trkpt lat="40.62652369549323" lon="9.68043757717383"><ele>15.600000000000001</ele><time>2026-04-30T08:59:24.002Z</time></trkpt><trkpt lat="40.626418800329944" lon="9.680444997453558"><ele>15.8</ele><time>2026-04-30T08:59:25.002Z</time></trkpt><trkpt lat="40.626310545756915" lon="9.680457071404135"><ele>16.0</ele><time>2026-04-30T08:59:26.002Z</time></trkpt><trkpt lat="40.62619655490399" lon="9.680468090938879"><ele>16.833333333333332</ele><time>2026-04-30T08:59:27.002Z</time></trkpt><trkpt lat="40.62608562419144" lon="9.680488470571579"><ele>17.666666666666664</ele><time>2026-04-30T08:59:28.002Z</time></trkpt><trkpt lat="40.62598665368854" lon="9.680512363049033"><ele>18.5</ele><time>2026-04-30T08:59:29.002Z</time></trkpt><trkpt lat="40.62591030702871" lon="9.680548644247379"><ele>19.333333333333332</ele><time>2026-04-30T08:59:30.002Z</time></trkpt><trkpt lat="40.62585032845054" lon="9.680574370263257"><ele>20.166666666666668</ele><time>2026-04-30T08:59:31.002Z</time></trkpt><trkpt lat="40.625818316840935" lon="9.6806549140823"><ele>21.0</ele><time>2026-04-30T08:59:32.002Z</time></trkpt><trkpt lat="40.62581169746596" lon="9.680753242779724"><ele>21.0</ele><time>2026-04-30T08:59:33.002Z</time></trkpt><trkpt lat="40.625792682441755" lon="9.680893628049137"><ele>21.0</ele><time>2026-04-30T08:59:35.002Z</time></trkpt><trkpt lat="40.62571883281604" lon="9.680970033850837"><ele>21.0</ele><time>2026-04-30T08:59:37.002Z</time></trkpt><trkpt lat="40.62565140369002" lon="9.681015315940487"><ele>21.0</ele><time>2026-04-30T08:59:38.002Z</time></trkpt><trkpt lat="40.625599436485686" lon="9.681066159851248"><ele>21.0</ele><time>2026-04-30T08:59:39.002Z</time></trkpt><trkpt lat="40.62555867286154" lon="9.681142615283022"><ele>21.0</ele><time>2026-04-30T08:59:40.002Z</time></trkpt><trkpt lat="40.62556146158134" lon="9.681251312500848"><ele>21.0</ele><time>2026-04-30T08:59:41.002Z</time></trkpt><trkpt lat="40.62555095407761" lon="9.681364018400886"><ele>21.0</ele><time>2026-04-30T08:59:42.002Z</time></trkpt><trkpt lat="40.625530273164564" lon="9.68147150373424"><ele>21.0</ele><time>2026-04-30T08:59:43.002Z</time></trkpt><trkpt lat="40.625537273162735" lon="9.68158995564696"><ele>21.0</ele><time>2026-04-30T08:59:44.002Z</time></trkpt><trkpt lat="40.625517525925936" lon="9.6816898000956"><ele>21.0</ele><time>2026-04-30T08:59:45.002Z</time></trkpt><trkpt lat="40.625509227876904" lon="9.68177650358205"><ele>21.0</ele><time>2026-04-30T08:59:46.002Z</time></trkpt><trkpt lat="40.62549247274675" lon="9.681908965298517"><ele>21.333333333333332</ele><time>2026-04-30T08:59:48.002Z</time></trkpt><trkpt lat="40.62548079562097" lon="9.682001281997147"><ele>21.666666666666668</ele><time>2026-04-30T08:59:49.002Z</time></trkpt><trkpt lat="40.6255600916333" lon="9.682093256008084"><ele>22.0</ele><time>2026-04-30T08:59:50.002Z</time></trkpt><trkpt lat="40.62556309603667" lon="9.682187894282446"><ele>22.333333333333336</ele><time>2026-04-30T08:59:51.002Z</time></trkpt><trkpt lat="40.62555777912823" lon="9.682280282346294"><ele>22.666666666666668</ele><time>2026-04-30T08:59:52.002Z</time></trkpt><trkpt lat="40.625537951199874" lon="9.682365293433499"><ele>23.0</ele><time>2026-04-30T08:59:53.002Z</time></trkpt><trkpt lat="40.62549356478141" lon="9.682437580416591"><ele>23.0</ele><time>2026-04-30T08:59:54.002Z</time></trkpt><trkpt lat="40.62542992089629" lon="9.682524489317592"><ele>23.0</ele><time>2026-04-30T08:59:55.002Z</time></trkpt><trkpt lat="40.625365676966275" lon="9.682636143249962"><ele>23.0</ele><time>2026-04-30T08:59:56.002Z</time></trkpt><trkpt lat="40.62530604658684" lon="9.68274595257982"><ele>23.0</ele><time>2026-04-30T08:59:57.002Z</time></trkpt><trkpt lat="40.625243768990536" lon="9.68283215368586"><ele>23.0</ele><time>2026-04-30T08:59:58.002Z</time></trkpt><trkpt lat="40.6251814327829" lon="9.68287275365431"><ele>25.2</ele><time>2026-04-30T08:59:59.002Z</time></trkpt><trkpt lat="40.62509298299861" lon="9.682959309531931"><ele>27.4</ele><time>2026-04-30T09:00:01.002Z</time></trkpt><trkpt lat="40.62504396319492" lon="9.683103970726082"><ele>29.599999999999998</ele><time>2026-04-30T09:00:03.002Z</time></trkpt><trkpt lat="40.625004555707854" lon="9.683253197139612"><ele>31.799999999999997</ele><time>2026-04-30T09:00:05.002Z</time></trkpt><trkpt lat="40.62498198831104" lon="9.68333530317431"><ele>34.0</ele><time>2026-04-30T09:00:06.002Z</time></trkpt><trkpt lat="40.6249246876802" lon="9.683448790684208"><ele>34.0</ele><time>2026-04-30T09:00:08.002Z</time></trkpt><trkpt lat="40.62481828353257" lon="9.683539929312543"><ele>34.0</ele><time>2026-04-30T09:00:10.002Z</time></trkpt><trkpt lat="40.62473484610662" lon="9.683581968525418"><ele>34.0</ele><time>2026-04-30T09:00:11.002Z</time></trkpt><trkpt lat="40.62463929819395" lon="9.683644129245156"><ele>34.0</ele><time>2026-04-30T09:00:12.002Z</time></trkpt><trkpt lat="40.6245484233101" lon="9.683707292856283"><ele>34.0</ele><time>2026-04-30T09:00:13.002Z</time></trkpt><trkpt lat="40.624458188976135" lon="9.683757898593294"><ele>35.0</ele><time>2026-04-30T09:00:14.002Z</time></trkpt><trkpt lat="40.624362669599584" lon="9.683811474734389"><ele>36.0</ele><time>2026-04-30T09:00:15.002Z</time></trkpt><trkpt lat="40.62426448539659" lon="9.68386601873194"><ele>37.0</ele><time>2026-04-30T09:00:16.003Z</time></trkpt><trkpt lat="40.62416666400036" lon="9.683917951952889"><ele>38.0</ele><time>2026-04-30T09:00:17.003Z</time></trkpt><trkpt lat="40.62408387598319" lon="9.68396800248445"><ele>39.0</ele><time>2026-04-30T09:00:18.003Z</time></trkpt><trkpt lat="40.62400714589132" lon="9.684034145418323"><ele>39.0</ele><time>2026-04-30T09:00:19.003Z</time></trkpt><trkpt lat="40.62394568645962" lon="9.684107266213424"><ele>39.0</ele><time>2026-04-30T09:00:20.003Z</time></trkpt><trkpt lat="40.623898122831896" lon="9.684199613818688"><ele>39.0</ele><time>2026-04-30T09:00:21.003Z</time></trkpt><trkpt lat="40.62385218966878" lon="9.684342596867433"><ele>39.0</ele><time>2026-04-30T09:00:23.003Z</time></trkpt><trkpt lat="40.623841525152116" lon="9.684449438584076"><ele>39.0</ele><time>2026-04-30T09:00:26.003Z</time></trkpt><trkpt lat="40.62373378987568" lon="9.684495611127064"><ele>40.0</ele><time>2026-04-30T09:00:30.003Z</time></trkpt><trkpt lat="40.62362801413468" lon="9.684491652097961"><ele>41.0</ele><time>2026-04-30T09:00:32.003Z</time></trkpt><trkpt lat="40.6235362862004" lon="9.684479507406445"><ele>42.0</ele><time>2026-04-30T09:00:34.003Z</time></trkpt><trkpt lat="40.623472266294144" lon="9.684474031988254"><ele>43.0</ele><time>2026-04-30T09:00:39.003Z</time></trkpt><trkpt lat="40.6235617529287" lon="9.68448219716057"><ele>44.0</ele><time>2026-04-30T09:00:48.003Z</time></trkpt><trkpt lat="40.62363978706551" lon="9.684487459092601"><ele>45.0</ele><time>2026-04-30T09:00:50.003Z</time></trkpt><trkpt lat="40.623715006200534" lon="9.684509293922822"><ele>45.0</ele><time>2026-04-30T09:00:52.003Z</time></trkpt><trkpt lat="40.623779477390734" lon="9.68449183264882"><ele>45.0</ele><time>2026-04-30T09:00:54.003Z</time></trkpt><trkpt lat="40.6238429492603" lon="9.684496368480826"><ele>45.0</ele><time>2026-04-30T09:00:58.003Z</time></trkpt><trkpt lat="40.62380517470755" lon="9.684573421242272"><ele>45.0</ele><time>2026-04-30T09:01:20.003Z</time></trkpt><trkpt lat="40.623789018021576" lon="9.684720785521785"><ele>45.0</ele><time>2026-04-30T09:01:23.003Z</time></trkpt><trkpt lat="40.62379569722123" lon="9.684815817524475"><ele>45.0</ele><time>2026-04-30T09:01:25.004Z</time></trkpt><trkpt lat="40.62380401434866" lon="9.684935275712554"><ele>45.0</ele><time>2026-04-30T09:01:27.004Z</time></trkpt><trkpt lat="40.62381512256466" lon="9.685057335256424"><ele>45.0</ele><time>2026-04-30T09:01:29.004Z</time></trkpt><trkpt lat="40.62382692563545" lon="9.685167158922813"><ele>45.0</ele><time>2026-04-30T09:01:31.004Z</time></trkpt><trkpt lat="40.62383599013649" lon="9.68530131628021"><ele>45.0</ele><time>2026-04-30T09:01:33.004Z</time></trkpt><trkpt lat="40.623854904891076" lon="9.685489140695264"><ele>45.0</ele><time>2026-04-30T09:01:35.004Z</time></trkpt><trkpt lat="40.62323704265594" lon="9.685702055638039"><ele>47.8</ele><time>2026-04-30T09:01:37.004Z</time></trkpt><trkpt lat="40.62319644598929" lon="9.685781515526738"><ele>50.6</ele><time>2026-04-30T09:01:38.004Z</time></trkpt><trkpt lat="40.62315369522514" lon="9.68594024409759"><ele>53.400000000000006</ele><time>2026-04-30T09:01:40.004Z</time></trkpt><trkpt lat="40.62310594953009" lon="9.686087672084494"><ele>56.2</ele><time>2026-04-30T09:01:42.004Z</time></trkpt><trkpt lat="40.623069811141264" lon="9.68624237171507"><ele>59.0</ele><time>2026-04-30T09:01:44.004Z</time></trkpt><trkpt lat="40.62304610116637" lon="9.68633850611493"><ele>60.333333333333336</ele><time>2026-04-30T09:01:45.004Z</time></trkpt><trkpt lat="40.6229812119994" lon="9.686453691493435"><ele>61.66666666666667</ele><time>2026-04-30T09:01:47.004Z</time></trkpt><trkpt lat="40.6229319733161" lon="9.686505826311787"><ele>63.0</ele><time>2026-04-30T09:01:48.004Z</time></trkpt><trkpt lat="40.62283063319438" lon="9.686572743005598"><ele>64.33333333333333</ele><time>2026-04-30T09:01:50.004Z</time></trkpt><trkpt lat="40.62278790763189" lon="9.6866386569584"><ele>65.66666666666666</ele><time>2026-04-30T09:01:51.004Z</time></trkpt><trkpt lat="40.62274819410574" lon="9.686708305929566"><ele>67.0</ele><time>2026-04-30T09:01:52.004Z</time></trkpt><trkpt lat="40.622678432078594" lon="9.686832290295213"><ele>69.5</ele><time>2026-04-30T09:01:54.004Z</time></trkpt><trkpt lat="40.6226153837193" lon="9.686917363192842"><ele>72.0</ele><time>2026-04-30T09:01:56.004Z</time></trkpt><trkpt lat="40.62252160893916" lon="9.686966020930518"><ele>74.5</ele><time>2026-04-30T09:01:58.004Z</time></trkpt><trkpt lat="40.622439735700944" lon="9.687047669780053"><ele>77.0</ele><time>2026-04-30T09:02:00.004Z</time></trkpt><trkpt lat="40.62239888019272" lon="9.687116192154724"><ele>79.5</ele><time>2026-04-30T09:02:01.004Z</time></trkpt><trkpt lat="40.62234791608181" lon="9.687183778931818"><ele>82.0</ele><time>2026-04-30T09:02:02.004Z</time></trkpt><trkpt lat="40.62223507537304" lon="9.687270860550749"><ele>82.0</ele><time>2026-04-30T09:02:04.004Z</time></trkpt><trkpt lat="40.62217894384067" lon="9.687326928598255"><ele>82.0</ele><time>2026-04-30T09:02:05.004Z</time></trkpt><trkpt lat="40.622123895981694" lon="9.687395711316952"><ele>82.0</ele><time>2026-04-30T09:02:06.004Z</time></trkpt><trkpt lat="40.62207734470269" lon="9.687468523692752"><ele>82.0</ele><time>2026-04-30T09:02:07.004Z</time></trkpt><trkpt lat="40.62201490102991" lon="9.687543584643624"><ele>82.0</ele><time>2026-04-30T09:02:08.004Z</time></trkpt><trkpt lat="40.62194962551661" lon="9.687608613878703"><ele>82.0</ele><time>2026-04-30T09:02:09.004Z</time></trkpt><trkpt lat="40.62188172716432" lon="9.687681284923991"><ele>85.28571428571428</ele><time>2026-04-30T09:02:10.004Z</time></trkpt><trkpt lat="40.62182020493518" lon="9.687756544980576"><ele>88.57142857142857</ele><time>2026-04-30T09:02:11.004Z</time></trkpt><trkpt lat="40.62176799971399" lon="9.687825378700422"><ele>91.85714285714286</ele><time>2026-04-30T09:02:12.004Z</time></trkpt><trkpt lat="40.621711620504094" lon="9.687895386810233"><ele>95.14285714285714</ele><time>2026-04-30T09:02:13.004Z</time></trkpt><trkpt lat="40.62165681788553" lon="9.68796315094751"><ele>98.42857142857143</ele><time>2026-04-30T09:02:14.004Z</time></trkpt><trkpt lat="40.62160704033117" lon="9.68803053507732"><ele>101.71428571428571</ele><time>2026-04-30T09:02:15.004Z</time></trkpt><trkpt lat="40.621556119979985" lon="9.688084759287245"><ele>105.0</ele><time>2026-04-30T09:02:16.004Z</time></trkpt><trkpt lat="40.62150015675672" lon="9.688160985368851"><ele>105.5</ele><time>2026-04-30T09:02:18.004Z</time></trkpt><trkpt lat="40.621479425387356" lon="9.688250421668243"><ele>106.0</ele><time>2026-04-30T09:02:20.004Z</time></trkpt><trkpt lat="40.6215016216118" lon="9.688344619510081"><ele>106.5</ele><time>2026-04-30T09:02:22.004Z</time></trkpt><trkpt lat="40.62159001037917" lon="9.688383986080282"><ele>107.0</ele><time>2026-04-30T09:02:24.004Z</time></trkpt><trkpt lat="40.621660525642035" lon="9.688388327919627"><ele>107.5</ele><time>2026-04-30T09:02:25.004Z</time></trkpt><trkpt lat="40.621734940211866" lon="9.688390473649832"><ele>108.0</ele><time>2026-04-30T09:02:26.004Z</time></trkpt><trkpt lat="40.621814140478186" lon="9.688398248975712"><ele>108.0</ele><time>2026-04-30T09:02:27.004Z</time></trkpt><trkpt lat="40.62188865866352" lon="9.688407121779177"><ele>108.0</ele><time>2026-04-30T09:02:28.004Z</time></trkpt><trkpt lat="40.62197316265252" lon="9.688429125800656"><ele>108.0</ele><time>2026-04-30T09:02:29.004Z</time></trkpt><trkpt lat="40.622049295126914" lon="9.688460848663254"><ele>108.0</ele><time>2026-04-30T09:02:30.004Z</time></trkpt><trkpt lat="40.622121260700986" lon="9.688494001408731"><ele>108.0</ele><time>2026-04-30T09:02:31.004Z</time></trkpt><trkpt lat="40.62218580391627" lon="9.688520054024504"><ele>108.0</ele><time>2026-04-30T09:02:32.005Z</time></trkpt><trkpt lat="40.6222371393712" lon="9.688633275053899"><ele>105.80000000000001</ele><time>2026-04-30T09:02:34.005Z</time></trkpt><trkpt lat="40.62226064538647" lon="9.688712600170508"><ele>103.60000000000001</ele><time>2026-04-30T09:02:35.005Z</time></trkpt><trkpt lat="40.62226927172146" lon="9.688881846308663"><ele>101.4</ele><time>2026-04-30T09:02:37.005Z</time></trkpt><trkpt lat="40.62223496439542" lon="9.689047216022749"><ele>99.19999999999999</ele><time>2026-04-30T09:02:39.005Z</time></trkpt><trkpt lat="40.622178439983394" lon="9.68912279885265"><ele>97.0</ele><time>2026-04-30T09:02:40.005Z</time></trkpt><trkpt lat="40.62211655459606" lon="9.689205278138118"><ele>97.0</ele><time>2026-04-30T09:02:41.005Z</time></trkpt><trkpt lat="40.622056307497346" lon="9.689291811365223"><ele>97.0</ele><time>2026-04-30T09:02:42.005Z</time></trkpt><trkpt lat="40.621994313870644" lon="9.689381445379295"><ele>97.0</ele><time>2026-04-30T09:02:43.005Z</time></trkpt><trkpt lat="40.62193973222985" lon="9.689485457061219"><ele>97.0</ele><time>2026-04-30T09:02:44.005Z</time></trkpt><trkpt lat="40.62188998630011" lon="9.689578917621368"><ele>97.0</ele><time>2026-04-30T09:02:45.005Z</time></trkpt><trkpt lat="40.62184913523543" lon="9.689678860217732"><ele>101.50000000000001</ele><time>2026-04-30T09:02:46.005Z</time></trkpt><trkpt lat="40.62180164997507" lon="9.689772375761384"><ele>106.0</ele><time>2026-04-30T09:02:47.005Z</time></trkpt><trkpt lat="40.62174909338431" lon="9.68987635617966"><ele>110.5</ele><time>2026-04-30T09:02:48.005Z</time></trkpt><trkpt lat="40.621720781767564" lon="9.68998035271184"><ele>115.0</ele><time>2026-04-30T09:02:49.005Z</time></trkpt><trkpt lat="40.62170511387668" lon="9.69009247036125"><ele>119.50000000000001</ele><time>2026-04-30T09:02:50.005Z</time></trkpt><trkpt lat="40.62167102653621" lon="9.690190435209047"><ele>124.0</ele><time>2026-04-30T09:02:51.005Z</time></trkpt><trkpt lat="40.6216385577883" lon="9.690283630601119"><ele>124.0</ele><time>2026-04-30T09:02:52.005Z</time></trkpt><trkpt lat="40.6216227088686" lon="9.690374475742694"><ele>124.0</ele><time>2026-04-30T09:02:53.005Z</time></trkpt><trkpt lat="40.62160956667112" lon="9.690487775693988"><ele>124.0</ele><time>2026-04-30T09:02:55.005Z</time></trkpt><trkpt lat="40.62155211723726" lon="9.690379383244341"><ele>124.0</ele><time>2026-04-30T09:02:59.005Z</time></trkpt><trkpt lat="40.621566911788065" lon="9.690268930582555"><ele>124.0</ele><time>2026-04-30T09:03:01.005Z</time></trkpt><trkpt lat="40.62161352257901" lon="9.690138109864117"><ele>124.0</ele><time>2026-04-30T09:03:03.005Z</time></trkpt><trkpt lat="40.62161108196853" lon="9.689977857492758"><ele>124.0</ele><time>2026-04-30T09:03:05.005Z</time></trkpt><trkpt lat="40.62159296822389" lon="9.68982385520847"><ele>124.0</ele><time>2026-04-30T09:03:07.005Z</time></trkpt><trkpt lat="40.6215948489042" lon="9.68973256539429"><ele>124.0</ele><time>2026-04-30T09:03:08.005Z</time></trkpt><trkpt lat="40.62160366311201" lon="9.689632605248534"><ele>124.0</ele><time>2026-04-30T09:03:09.005Z</time></trkpt><trkpt lat="40.62162631295741" lon="9.68953945318089"><ele>124.00000000000001</ele><time>2026-04-30T09:03:10.005Z</time></trkpt><trkpt lat="40.62164411837247" lon="9.689446234264715"><ele>124.0</ele><time>2026-04-30T09:03:11.005Z</time></trkpt><trkpt lat="40.6216597289505" lon="9.689364534250904"><ele>124.0</ele><time>2026-04-30T09:03:12.005Z</time></trkpt><trkpt lat="40.621660674093924" lon="9.689214646390685"><ele>124.0</ele><time>2026-04-30T09:03:14.005Z</time></trkpt><trkpt lat="40.62161408404141" lon="9.689140512408319"><ele>124.00000000000001</ele><time>2026-04-30T09:03:16.005Z</time></trkpt><trkpt lat="40.62155106763515" lon="9.68910480148833"><ele>124.0</ele><time>2026-04-30T09:03:18.005Z</time></trkpt><trkpt lat="40.62145956345423" lon="9.689144933877467"><ele>124.00000000000001</ele><time>2026-04-30T09:03:20.005Z</time></trkpt><trkpt lat="40.6213969669345" lon="9.689181683974134"><ele>124.0</ele><time>2026-04-30T09:03:21.005Z</time></trkpt><trkpt lat="40.62133715813816" lon="9.689219741551554"><ele>124.0</ele><time>2026-04-30T09:03:22.005Z</time></trkpt><trkpt lat="40.621270762125" lon="9.689245605487063"><ele>124.0</ele><time>2026-04-30T09:03:23.005Z</time></trkpt><trkpt lat="40.62120676075813" lon="9.689270872245816"><ele>124.00000000000001</ele><time>2026-04-30T09:03:24.005Z</time></trkpt><trkpt lat="40.62109557983203" lon="9.689341732993862"><ele>124.0</ele><time>2026-04-30T09:03:26.005Z</time></trkpt><trkpt lat="40.62103080845006" lon="9.689366220031737"><ele>126.00000000000001</ele><time>2026-04-30T09:03:27.005Z</time></trkpt><trkpt lat="40.62097310276676" lon="9.689404116839567"><ele>128.0</ele><time>2026-04-30T09:03:28.005Z</time></trkpt><trkpt lat="40.620901863908045" lon="9.68944421420978"><ele>130.0</ele><time>2026-04-30T09:03:29.005Z</time></trkpt><trkpt lat="40.62084373375763" lon="9.689477530783254"><ele>132.0</ele><time>2026-04-30T09:03:30.005Z</time></trkpt><trkpt lat="40.62078260277694" lon="9.689508053876509"><ele>134.0</ele><time>2026-04-30T09:03:31.005Z</time></trkpt><trkpt lat="40.6207084046416" lon="9.689529714346415"><ele>136.0</ele><time>2026-04-30T09:03:32.005Z</time></trkpt><trkpt lat="40.62056732781082" lon="9.689553080758454"><ele>140.33333333333334</ele><time>2026-04-30T09:03:34.005Z</time></trkpt><trkpt lat="40.62049240035679" lon="9.689555403270305"><ele>144.66666666666669</ele><time>2026-04-30T09:03:35.005Z</time></trkpt><trkpt lat="40.62041817110927" lon="9.689554169357441"><ele>149.0</ele><time>2026-04-30T09:03:36.005Z</time></trkpt><trkpt lat="40.62027964693543" lon="9.68957942564756"><ele>153.33333333333334</ele><time>2026-04-30T09:03:38.005Z</time></trkpt><trkpt lat="40.62020802792026" lon="9.689576351530848"><ele>157.66666666666666</ele><time>2026-04-30T09:03:39.005Z</time></trkpt><trkpt lat="40.620138639243144" lon="9.689569213885443"><ele>162.0</ele><time>2026-04-30T09:03:40.006Z</time></trkpt><trkpt lat="40.62006830578265" lon="9.689566077399038"><ele>166.16666666666666</ele><time>2026-04-30T09:03:41.006Z</time></trkpt><trkpt lat="40.619938606094685" lon="9.689540492324554"><ele>170.33333333333334</ele><time>2026-04-30T09:03:43.006Z</time></trkpt><trkpt lat="40.61987653835256" lon="9.689500766738893"><ele>174.5</ele><time>2026-04-30T09:03:44.006Z</time></trkpt><trkpt lat="40.61980128386646" lon="9.689472702765514"><ele>178.66666666666669</ele><time>2026-04-30T09:03:45.006Z</time></trkpt><trkpt lat="40.619728132196165" lon="9.689461218769507"><ele>182.83333333333334</ele><time>2026-04-30T09:03:46.006Z</time></trkpt><trkpt lat="40.619654681546336" lon="9.689440456312369"><ele>187.0</ele><time>2026-04-30T09:03:47.006Z</time></trkpt><trkpt lat="40.61954633679746" lon="9.68943840902514"><ele>188.16666666666669</ele><time>2026-04-30T09:03:49.006Z</time></trkpt><trkpt lat="40.61946078829217" lon="9.689501728051429"><ele>189.33333333333334</ele><time>2026-04-30T09:03:51.006Z</time></trkpt><trkpt lat="40.61937159834208" lon="9.68959742423316"><ele>190.5</ele><time>2026-04-30T09:03:53.006Z</time></trkpt><trkpt lat="40.61931415649341" lon="9.689632449615528"><ele>191.66666666666669</ele><time>2026-04-30T09:03:54.006Z</time></trkpt><trkpt lat="40.61925372320653" lon="9.689663524128816"><ele>192.83333333333334</ele><time>2026-04-30T09:03:55.006Z</time></trkpt><trkpt lat="40.61919492175039" lon="9.6896943667043"><ele>194.0</ele><time>2026-04-30T09:03:56.006Z</time></trkpt><trkpt lat="40.619134928183925" lon="9.689741056446323"><ele>194.00000000000003</ele><time>2026-04-30T09:03:57.006Z</time></trkpt><trkpt lat="40.61906918655347" lon="9.689757584996935"><ele>194.0</ele><time>2026-04-30T09:03:58.006Z</time></trkpt><trkpt lat="40.61898953077375" lon="9.689698463425994"><ele>194.0</ele><time>2026-04-30T09:04:00.006Z</time></trkpt><trkpt lat="40.61892784265539" lon="9.689602785958884"><ele>194.0</ele><time>2026-04-30T09:04:02.006Z</time></trkpt><trkpt lat="40.61887554602307" lon="9.689675976881007"><ele>194.00000000000003</ele><time>2026-04-30T09:04:06.006Z</time></trkpt><trkpt lat="40.61883800334742" lon="9.689807243886602"><ele>194.0</ele><time>2026-04-30T09:04:08.006Z</time></trkpt><trkpt lat="40.618797509842565" lon="9.689930507524771"><ele>194.00000000000003</ele><time>2026-04-30T09:04:10.006Z</time></trkpt><trkpt lat="40.6188156404468" lon="9.69005403622075"><ele>194.0</ele><time>2026-04-30T09:04:12.006Z</time></trkpt><trkpt lat="40.61885420750855" lon="9.690132891946346"><ele>194.0</ele><time>2026-04-30T09:04:13.006Z</time></trkpt><trkpt lat="40.61890721288071" lon="9.690180064506237"><ele>194.0</ele><time>2026-04-30T09:04:14.006Z</time></trkpt><trkpt lat="40.61888834581271" lon="9.690262882790515"><ele>194.00000000000003</ele><time>2026-04-30T09:04:16.006Z</time></trkpt><trkpt lat="40.618816529204715" lon="9.690233859322696"><ele>194.0</ele><time>2026-04-30T09:04:18.006Z</time></trkpt><trkpt lat="40.61876967531574" lon="9.690130777011722"><ele>194.00000000000003</ele><time>2026-04-30T09:04:20.006Z</time></trkpt><trkpt lat="40.618734059624614" lon="9.69004999848566"><ele>194.0</ele><time>2026-04-30T09:04:21.006Z</time></trkpt><trkpt lat="40.618705498015636" lon="9.689951345356285"><ele>194.0</ele><time>2026-04-30T09:04:22.006Z</time></trkpt><trkpt lat="40.61868432348238" lon="9.689855126380913"><ele>194.0</ele><time>2026-04-30T09:04:23.006Z</time></trkpt><trkpt lat="40.61865846532489" lon="9.689778650805698"><ele>194.00000000000003</ele><time>2026-04-30T09:04:24.006Z</time></trkpt><trkpt lat="40.618613465633764" lon="9.689697986917531"><ele>194.0</ele><time>2026-04-30T09:04:25.006Z</time></trkpt><trkpt lat="40.618583094778195" lon="9.68958749619876"><ele>196.39999999999998</ele><time>2026-04-30T09:04:26.006Z</time></trkpt><trkpt lat="40.61855221891503" lon="9.689430114355194"><ele>198.8</ele><time>2026-04-30T09:04:28.006Z</time></trkpt><trkpt lat="40.61849221377932" lon="9.689324280297866"><ele>201.2</ele><time>2026-04-30T09:04:30.006Z</time></trkpt><trkpt lat="40.618404640642865" lon="9.68928844513214"><ele>203.60000000000002</ele><time>2026-04-30T09:04:32.006Z</time></trkpt><trkpt lat="40.61828889740843" lon="9.689263694734718"><ele>206.0</ele><time>2026-04-30T09:04:34.006Z</time></trkpt><trkpt lat="40.61816668004186" lon="9.689261482539369"><ele>206.00000000000003</ele><time>2026-04-30T09:04:36.006Z</time></trkpt><trkpt lat="40.61807583733828" lon="9.689262459863782"><ele>206.0</ele><time>2026-04-30T09:04:38.006Z</time></trkpt><trkpt lat="40.617986908117445" lon="9.689290111509212"><ele>206.0</ele><time>2026-04-30T09:04:40.006Z</time></trkpt><trkpt lat="40.617923635999176" lon="9.689309255243776"><ele>206.0</ele><time>2026-04-30T09:04:52.007Z</time></trkpt><trkpt lat="40.61785275075705" lon="9.689262599446867"><ele>206.00000000000003</ele><time>2026-04-30T09:04:54.007Z</time></trkpt><trkpt lat="40.617804132583586" lon="9.689135839994828"><ele>206.0</ele><time>2026-04-30T09:04:59.007Z</time></trkpt><trkpt lat="40.617811187152185" lon="9.689002970836677"><ele>207.20000000000002</ele><time>2026-04-30T09:05:01.007Z</time></trkpt><trkpt lat="40.61779426784664" lon="9.688875883623627"><ele>208.4</ele><time>2026-04-30T09:05:03.007Z</time></trkpt><trkpt lat="40.61779275485616" lon="9.688766613857446"><ele>209.6</ele><time>2026-04-30T09:05:05.007Z</time></trkpt><trkpt lat="40.61781112337907" lon="9.688627179345133"><ele>210.8</ele><time>2026-04-30T09:05:07.007Z</time></trkpt><trkpt lat="40.61783695866967" lon="9.688477593266388"><ele>212.0</ele><time>2026-04-30T09:05:09.007Z</time></trkpt><trkpt lat="40.6178397744064" lon="9.688336684040815"><ele>212.0</ele><time>2026-04-30T09:05:11.007Z</time></trkpt><trkpt lat="40.61788929405999" lon="9.688211625389249"><ele>212.0</ele><time>2026-04-30T09:05:13.007Z</time></trkpt><trkpt lat="40.617979097757804" lon="9.68812003763172"><ele>212.0</ele><time>2026-04-30T09:05:15.007Z</time></trkpt><trkpt lat="40.61807233405299" lon="9.688039829472455"><ele>212.0</ele><time>2026-04-30T09:05:17.007Z</time></trkpt><trkpt lat="40.618146082968906" lon="9.687941323028133"><ele>212.0</ele><time>2026-04-30T09:05:19.007Z</time></trkpt><trkpt lat="40.618208294282034" lon="9.687830201990264"><ele>214.33333333333334</ele><time>2026-04-30T09:05:21.007Z</time></trkpt><trkpt lat="40.61823201274719" lon="9.687746793860224"><ele>216.66666666666669</ele><time>2026-04-30T09:05:22.007Z</time></trkpt><trkpt lat="40.61824592447494" lon="9.687629083409593"><ele>219.0</ele><time>2026-04-30T09:05:24.007Z</time></trkpt><trkpt lat="40.61821205257392" lon="9.687546029270862"><ele>221.33333333333331</ele><time>2026-04-30T09:05:26.007Z</time></trkpt><trkpt lat="40.61811458124095" lon="9.687447874092436"><ele>223.66666666666666</ele><time>2026-04-30T09:05:28.007Z</time></trkpt><trkpt lat="40.618055151343015" lon="9.6873869730723"><ele>226.0</ele><time>2026-04-30T09:05:29.007Z</time></trkpt><trkpt lat="40.6180071373616" lon="9.687329079861556"><ele>225.99999999999997</ele><time>2026-04-30T09:05:30.007Z</time></trkpt><trkpt lat="40.61793779621135" lon="9.687265731416385"><ele>226.0</ele><time>2026-04-30T09:05:32.007Z</time></trkpt><trkpt lat="40.61787159788137" lon="9.687294233876125"><ele>226.0</ele><time>2026-04-30T09:05:34.007Z</time></trkpt><trkpt lat="40.61779543996349" lon="9.687370400523712"><ele>226.0</ele><time>2026-04-30T09:05:36.007Z</time></trkpt><trkpt lat="40.61773969409594" lon="9.68742281102289"><ele>225.99999999999997</ele><time>2026-04-30T09:05:37.007Z</time></trkpt><trkpt lat="40.61764104556822" lon="9.687456449002896"><ele>226.0</ele><time>2026-04-30T09:05:39.007Z</time></trkpt><trkpt lat="40.61755402410237" lon="9.68742173465883"><ele>231.0</ele><time>2026-04-30T09:05:41.007Z</time></trkpt><trkpt lat="40.617498676753165" lon="9.687372565795897"><ele>236.00000000000003</ele><time>2026-04-30T09:05:42.007Z</time></trkpt><trkpt lat="40.617401638250676" lon="9.687319635173631"><ele>241.00000000000003</ele><time>2026-04-30T09:05:44.007Z</time></trkpt><trkpt lat="40.6172985129187" lon="9.687330565837843"><ele>246.0</ele><time>2026-04-30T09:05:46.007Z</time></trkpt><trkpt lat="40.61723856654359" lon="9.687361046955974"><ele>251.0</ele><time>2026-04-30T09:05:47.007Z</time></trkpt><trkpt lat="40.617147211003314" lon="9.687442477515372"><ele>251.00000000000003</ele><time>2026-04-30T09:05:49.007Z</time></trkpt><trkpt lat="40.61708635616829" lon="9.687496442544779"><ele>251.0</ele><time>2026-04-30T09:05:50.007Z</time></trkpt><trkpt lat="40.61700804823503" lon="9.687536741034394"><ele>251.0</ele><time>2026-04-30T09:05:52.007Z</time></trkpt><trkpt lat="40.61694419242039" lon="9.687468593452243"><ele>251.0</ele><time>2026-04-30T09:05:54.007Z</time></trkpt><trkpt lat="40.61687799661188" lon="9.687335363273691"><ele>251.00000000000003</ele><time>2026-04-30T09:05:56.008Z</time></trkpt><trkpt lat="40.61683406875714" lon="9.687275266128717"><ele>251.0</ele><time>2026-04-30T09:05:57.008Z</time></trkpt><trkpt lat="40.61679758061359" lon="9.687199760856762"><ele>251.1428571428571</ele><time>2026-04-30T09:05:58.008Z</time></trkpt><trkpt lat="40.61676781281479" lon="9.687126538557866"><ele>251.28571428571428</ele><time>2026-04-30T09:05:59.008Z</time></trkpt><trkpt lat="40.61675589657355" lon="9.68704000032571"><ele>251.42857142857142</ele><time>2026-04-30T09:06:00.008Z</time></trkpt><trkpt lat="40.61673576734422" lon="9.686941326121739"><ele>251.57142857142856</ele><time>2026-04-30T09:06:01.008Z</time></trkpt><trkpt lat="40.6167224195263" lon="9.686840305773194"><ele>251.71428571428572</ele><time>2026-04-30T09:06:02.008Z</time></trkpt><trkpt lat="40.61670364801534" lon="9.686747538706333"><ele>251.85714285714286</ele><time>2026-04-30T09:06:03.008Z</time></trkpt><trkpt lat="40.616668583155565" lon="9.686652466335719"><ele>252.0</ele><time>2026-04-30T09:06:04.008Z</time></trkpt><trkpt lat="40.61663528499045" lon="9.686576287598992"><ele>252.0</ele><time>2026-04-30T09:06:05.008Z</time></trkpt><trkpt lat="40.61657280126619" lon="9.686536072338825"><ele>252.0</ele><time>2026-04-30T09:06:09.008Z</time></trkpt><trkpt lat="40.61650729104128" lon="9.686542151522799"><ele>252.0</ele><time>2026-04-30T09:06:11.008Z</time></trkpt><trkpt lat="40.616447228905606" lon="9.686615807466271"><ele>252.0</ele><time>2026-04-30T09:06:13.008Z</time></trkpt><trkpt lat="40.616403466854145" lon="9.686702433691087"><ele>252.0</ele><time>2026-04-30T09:06:15.008Z</time></trkpt><trkpt lat="40.616351057234176" lon="9.68678668646828"><ele>252.0</ele><time>2026-04-30T09:06:17.008Z</time></trkpt><trkpt lat="40.61627711258712" lon="9.686864626070452"><ele>252.0</ele><time>2026-04-30T09:06:19.008Z</time></trkpt><trkpt lat="40.61622443765303" lon="9.686910134268915"><ele>252.0</ele><time>2026-04-30T09:06:20.008Z</time></trkpt><trkpt lat="40.61612180967959" lon="9.686995827252277"><ele>252.0</ele><time>2026-04-30T09:06:22.008Z</time></trkpt><trkpt lat="40.61601106452237" lon="9.687090204428081"><ele>252.0</ele><time>2026-04-30T09:06:24.008Z</time></trkpt><trkpt lat="40.61592270138908" lon="9.687194118253755"><ele>252.0</ele><time>2026-04-30T09:06:26.008Z</time></trkpt><trkpt lat="40.61584902279975" lon="9.687274126795563"><ele>253.8</ele><time>2026-04-30T09:06:28.008Z</time></trkpt><trkpt lat="40.61578509341198" lon="9.687220009071936"><ele>255.6</ele><time>2026-04-30T09:06:30.008Z</time></trkpt><trkpt lat="40.61574147246527" lon="9.687096184789336"><ele>257.40000000000003</ele><time>2026-04-30T09:06:32.008Z</time></trkpt><trkpt lat="40.61574655954892" lon="9.686948096314845"><ele>259.2</ele><time>2026-04-30T09:06:34.008Z</time></trkpt><trkpt lat="40.61571053157448" lon="9.686851757521058"><ele>261.0</ele><time>2026-04-30T09:06:36.008Z</time></trkpt><trkpt lat="40.615612805415516" lon="9.686764528057608"><ele>261.0</ele><time>2026-04-30T09:06:38.008Z</time></trkpt><trkpt lat="40.615549932601056" lon="9.68674429055225"><ele>261.0</ele><time>2026-04-30T09:06:39.008Z</time></trkpt><trkpt lat="40.61548672148202" lon="9.686727799350518"><ele>261.0</ele><time>2026-04-30T09:06:40.008Z</time></trkpt><trkpt lat="40.61541803238117" lon="9.686717003985725"><ele>261.0</ele><time>2026-04-30T09:06:41.008Z</time></trkpt><trkpt lat="40.61535256564667" lon="9.686718128853048"><ele>261.0</ele><time>2026-04-30T09:06:42.008Z</time></trkpt><trkpt lat="40.61523879476848" lon="9.686691221747598"><ele>261.0</ele><time>2026-04-30T09:06:44.008Z</time></trkpt><trkpt lat="40.61519912467184" lon="9.686596149051915"><ele>266.8</ele><time>2026-04-30T09:06:46.008Z</time></trkpt><trkpt lat="40.615219289782175" lon="9.68647131701011"><ele>272.6</ele><time>2026-04-30T09:06:48.008Z</time></trkpt><trkpt lat="40.61524965298759" lon="9.686358029242152"><ele>278.4</ele><time>2026-04-30T09:06:50.008Z</time></trkpt><trkpt lat="40.615181080858555" lon="9.68625837254607"><ele>284.2</ele><time>2026-04-30T09:06:53.008Z</time></trkpt><trkpt lat="40.615090821835146" lon="9.686215633136827"><ele>290.0</ele><time>2026-04-30T09:06:55.008Z</time></trkpt><trkpt lat="40.61502379767713" lon="9.686227105677142"><ele>290.0</ele><time>2026-04-30T09:06:56.008Z</time></trkpt><trkpt lat="40.61495782042219" lon="9.686234794848968"><ele>290.0</ele><time>2026-04-30T09:06:57.008Z</time></trkpt><trkpt lat="40.61482835721682" lon="9.686253215282855"><ele>290.0</ele><time>2026-04-30T09:06:59.008Z</time></trkpt><trkpt lat="40.61474300071125" lon="9.68620693251024"><ele>290.0</ele><time>2026-04-30T09:07:01.008Z</time></trkpt><trkpt lat="40.61470114940491" lon="9.686130546379752"><ele>290.0</ele><time>2026-04-30T09:07:03.008Z</time></trkpt><trkpt lat="40.61466905226014" lon="9.686027196899518"><ele>290.0</ele><time>2026-04-30T09:07:05.009Z</time></trkpt><trkpt lat="40.61464228939236" lon="9.68593211499572"><ele>290.6</ele><time>2026-04-30T09:07:07.009Z</time></trkpt><trkpt lat="40.61454984526942" lon="9.685918749283449"><ele>291.2</ele><time>2026-04-30T09:07:09.009Z</time></trkpt><trkpt lat="40.61444497542016" lon="9.685916029483803"><ele>291.8</ele><time>2026-04-30T09:07:11.009Z</time></trkpt><trkpt lat="40.61432521481915" lon="9.68593528624016"><ele>292.4</ele><time>2026-04-30T09:07:13.009Z</time></trkpt><trkpt lat="40.614241177202494" lon="9.685896554835615"><ele>293.0</ele><time>2026-04-30T09:07:15.009Z</time></trkpt><trkpt lat="40.61416282865738" lon="9.68580408983451"><ele>293.0</ele><time>2026-04-30T09:07:17.009Z</time></trkpt><trkpt lat="40.61410343150688" lon="9.685693358733248"><ele>293.0</ele><time>2026-04-30T09:07:19.009Z</time></trkpt><trkpt lat="40.61404359971583" lon="9.685633647762758"><ele>293.0</ele><time>2026-04-30T09:07:21.009Z</time></trkpt><trkpt lat="40.61398488309639" lon="9.685520657738769"><ele>293.0</ele><time>2026-04-30T09:07:23.009Z</time></trkpt><trkpt lat="40.613976059098604" lon="9.685431645858856"><ele>293.0</ele><time>2026-04-30T09:07:24.009Z</time></trkpt><trkpt lat="40.61397682236431" lon="9.685341086700145"><ele>293.0</ele><time>2026-04-30T09:07:25.009Z</time></trkpt><trkpt lat="40.61396400567143" lon="9.685201569638267"><ele>295.6</ele><time>2026-04-30T09:07:27.009Z</time></trkpt><trkpt lat="40.613891130409485" lon="9.685140185882373"><ele>298.20000000000005</ele><time>2026-04-30T09:07:29.009Z</time></trkpt><trkpt lat="40.613790631300034" lon="9.685060277365473"><ele>300.8</ele><time>2026-04-30T09:07:31.009Z</time></trkpt><trkpt lat="40.61367540610959" lon="9.685052935624517"><ele>303.40000000000003</ele><time>2026-04-30T09:07:33.009Z</time></trkpt><trkpt lat="40.61355730954843" lon="9.685080632196048"><ele>306.0</ele><time>2026-04-30T09:07:35.009Z</time></trkpt><trkpt lat="40.61343662008959" lon="9.685091527092322"><ele>306.0</ele><time>2026-04-30T09:07:37.009Z</time></trkpt><trkpt lat="40.61333383191419" lon="9.685089359818491"><ele>306.0</ele><time>2026-04-30T09:07:39.009Z</time></trkpt><trkpt lat="40.6132311490587" lon="9.685041392518304"><ele>306.0</ele><time>2026-04-30T09:07:41.009Z</time></trkpt><trkpt lat="40.613145287094106" lon="9.684947198801671"><ele>306.0</ele><time>2026-04-30T09:07:43.009Z</time></trkpt><trkpt lat="40.6130716060805" lon="9.684824152399294"><ele>306.0</ele><time>2026-04-30T09:07:45.009Z</time></trkpt><trkpt lat="40.61307563852796" lon="9.684704381421103"><ele>306.0</ele><time>2026-04-30T09:07:47.009Z</time></trkpt><trkpt lat="40.61310378962786" lon="9.684624895816295"><ele>306.0</ele><time>2026-04-30T09:07:48.009Z</time></trkpt><trkpt lat="40.61312885283204" lon="9.684508086322241"><ele>306.0</ele><time>2026-04-30T09:07:49.009Z</time></trkpt><trkpt lat="40.61316210866478" lon="9.684401443945086"><ele>306.0</ele><time>2026-04-30T09:07:51.009Z</time></trkpt><trkpt lat="40.613108524740305" lon="9.684335527791225"><ele>306.0</ele><time>2026-04-30T09:07:53.009Z</time></trkpt><trkpt lat="40.61298927514245" lon="9.684243662105837"><ele>303.8333333333333</ele><time>2026-04-30T09:07:55.009Z</time></trkpt><trkpt lat="40.61291895650194" lon="9.684180624600296"><ele>301.6666666666667</ele><time>2026-04-30T09:07:56.009Z</time></trkpt><trkpt lat="40.612867162912366" lon="9.684122587125042"><ele>299.5</ele><time>2026-04-30T09:07:57.009Z</time></trkpt><trkpt lat="40.61280764142691" lon="9.684060641753872"><ele>297.33333333333337</ele><time>2026-04-30T09:07:58.009Z</time></trkpt><trkpt lat="40.61273959507237" lon="9.683958902197906"><ele>295.1666666666667</ele><time>2026-04-30T09:08:00.009Z</time></trkpt><trkpt lat="40.612766968879406" lon="9.68384976317711"><ele>293.0</ele><time>2026-04-30T09:08:02.009Z</time></trkpt><trkpt lat="40.61277997474416" lon="9.683766931442776"><ele>293.5</ele><time>2026-04-30T09:08:03.009Z</time></trkpt><trkpt lat="40.61279814281191" lon="9.683629397611695"><ele>294.0</ele><time>2026-04-30T09:08:05.009Z</time></trkpt><trkpt lat="40.61281911261134" lon="9.683542651820705"><ele>294.5</ele><time>2026-04-30T09:08:06.009Z</time></trkpt><trkpt lat="40.61284928314713" lon="9.683461515779243"><ele>295.0</ele><time>2026-04-30T09:08:07.009Z</time></trkpt><trkpt lat="40.612892448571756" lon="9.683369340881002"><ele>295.5</ele><time>2026-04-30T09:08:08.009Z</time></trkpt><trkpt lat="40.612922611197476" lon="9.683277646197586"><ele>296.0</ele><time>2026-04-30T09:08:09.009Z</time></trkpt><trkpt lat="40.612965352962696" lon="9.683189539672615"><ele>296.0</ele><time>2026-04-30T09:08:10.009Z</time></trkpt><trkpt lat="40.613012163433034" lon="9.68308725530196"><ele>296.0</ele><time>2026-04-30T09:08:11.009Z</time></trkpt><trkpt lat="40.613061807769924" lon="9.682987923666252"><ele>296.0</ele><time>2026-04-30T09:08:12.009Z</time></trkpt><trkpt lat="40.61309645224053" lon="9.682901959511618"><ele>296.0</ele><time>2026-04-30T09:08:13.01Z</time></trkpt><trkpt lat="40.6131122775757" lon="9.682762728063517"><ele>296.0</ele><time>2026-04-30T09:08:15.01Z</time></trkpt><trkpt lat="40.61311530467422" lon="9.682677162843113"><ele>296.0</ele><time>2026-04-30T09:08:16.01Z</time></trkpt><trkpt lat="40.61309010170883" lon="9.682596491973799"><ele>297.83333333333337</ele><time>2026-04-30T09:08:17.01Z</time></trkpt><trkpt lat="40.61307053888719" lon="9.682516053735686"><ele>299.6666666666667</ele><time>2026-04-30T09:08:18.01Z</time></trkpt><trkpt lat="40.61304081995476" lon="9.682415536574174"><ele>301.5</ele><time>2026-04-30T09:08:19.01Z</time></trkpt><trkpt lat="40.61300274825501" lon="9.68231900976968"><ele>303.3333333333333</ele><time>2026-04-30T09:08:20.01Z</time></trkpt><trkpt lat="40.6129674737298" lon="9.682235962156303"><ele>305.16666666666663</ele><time>2026-04-30T09:08:21.01Z</time></trkpt><trkpt lat="40.61291573409859" lon="9.682155412608356"><ele>307.0</ele><time>2026-04-30T09:08:23.01Z</time></trkpt><trkpt lat="40.61282390753151" lon="9.682125982874764"><ele>309.5</ele><time>2026-04-30T09:08:25.01Z</time></trkpt><trkpt lat="40.6127481205008" lon="9.682131024203962"><ele>312.0</ele><time>2026-04-30T09:08:27.01Z</time></trkpt><trkpt lat="40.61267328163232" lon="9.682058088285562"><ele>314.5</ele><time>2026-04-30T09:10:11.011Z</time></trkpt><trkpt lat="40.61269727187185" lon="9.681923546286889"><ele>317.0</ele><time>2026-04-30T09:10:21.011Z</time></trkpt><trkpt lat="40.61270705061218" lon="9.681826670883348"><ele>319.5</ele><time>2026-04-30T09:10:23.011Z</time></trkpt><trkpt lat="40.612708947542785" lon="9.681694189946832"><ele>322.0</ele><time>2026-04-30T09:10:25.011Z</time></trkpt><trkpt lat="40.612713102292005" lon="9.681610037459453"><ele>322.0</ele><time>2026-04-30T09:10:26.011Z</time></trkpt><trkpt lat="40.61271882122726" lon="9.68150152820766"><ele>322.0</ele><time>2026-04-30T09:10:27.011Z</time></trkpt><trkpt lat="40.61272744314532" lon="9.681396862328087"><ele>322.0</ele><time>2026-04-30T09:10:28.011Z</time></trkpt><trkpt lat="40.61272883144259" lon="9.681296531997486"><ele>322.0</ele><time>2026-04-30T09:10:29.012Z</time></trkpt><trkpt lat="40.6126949696181" lon="9.68122003697695"><ele>322.0</ele><time>2026-04-30T09:10:31.012Z</time></trkpt><trkpt lat="40.61261286783741" lon="9.681180088385776"><ele>322.0</ele><time>2026-04-30T09:10:33.012Z</time></trkpt><trkpt lat="40.612506243595284" lon="9.681148425561144"><ele>320.20000000000005</ele><time>2026-04-30T09:10:35.012Z</time></trkpt><trkpt lat="40.61241180387487" lon="9.681094436662528"><ele>318.40000000000003</ele><time>2026-04-30T09:10:37.012Z</time></trkpt><trkpt lat="40.6123149315883" lon="9.681000442692893"><ele>316.6</ele><time>2026-04-30T09:10:39.012Z</time></trkpt><trkpt lat="40.61225419958161" lon="9.680946450132362"><ele>314.8</ele><time>2026-04-30T09:10:40.012Z</time></trkpt><trkpt lat="40.61214829084268" lon="9.680864591753489"><ele>313.0</ele><time>2026-04-30T09:10:42.012Z</time></trkpt><trkpt lat="40.612094372126" lon="9.680821099091542"><ele>313.0</ele><time>2026-04-30T09:10:43.012Z</time></trkpt><trkpt lat="40.61203287875433" lon="9.680770138820284"><ele>313.0</ele><time>2026-04-30T09:10:44.012Z</time></trkpt><trkpt lat="40.61196203550118" lon="9.680661614608608"><ele>313.0</ele><time>2026-04-30T09:10:46.012Z</time></trkpt><trkpt lat="40.61189188032016" lon="9.680547189331458"><ele>313.0</ele><time>2026-04-30T09:10:48.012Z</time></trkpt><trkpt lat="40.61184457656937" lon="9.68043652884969"><ele>313.0</ele><time>2026-04-30T09:10:50.012Z</time></trkpt><trkpt lat="40.61180073371548" lon="9.680321489626383"><ele>312.0</ele><time>2026-04-30T09:10:52.012Z</time></trkpt><trkpt lat="40.61175962389451" lon="9.680199634013693"><ele>311.0</ele><time>2026-04-30T09:10:54.012Z</time></trkpt><trkpt lat="40.61174297924045" lon="9.680110196664712"><ele>310.0</ele><time>2026-04-30T09:10:56.012Z</time></trkpt><trkpt lat="40.61171365702933" lon="9.680028899418982"><ele>309.0</ele><time>2026-04-30T09:10:58.012Z</time></trkpt><trkpt lat="40.611674646769806" lon="9.679946891807935"><ele>308.0</ele><time>2026-04-30T09:11:00.012Z</time></trkpt><trkpt lat="40.611648630455434" lon="9.679830806436309"><ele>307.0</ele><time>2026-04-30T09:11:02.012Z</time></trkpt><trkpt lat="40.61159481620628" lon="9.6796916975423"><ele>307.0</ele><time>2026-04-30T09:11:04.012Z</time></trkpt><trkpt lat="40.61155544253152" lon="9.679554068830466"><ele>307.0</ele><time>2026-04-30T09:11:06.012Z</time></trkpt><trkpt lat="40.611511407492216" lon="9.679417399413975"><ele>307.0</ele><time>2026-04-30T09:11:08.012Z</time></trkpt><trkpt lat="40.61145290306601" lon="9.679290498965393"><ele>307.0</ele><time>2026-04-30T09:11:10.012Z</time></trkpt><trkpt lat="40.61137164482594" lon="9.679170581187556"><ele>304.8</ele><time>2026-04-30T09:11:12.012Z</time></trkpt><trkpt lat="40.611300944785214" lon="9.679068209610877"><ele>302.6</ele><time>2026-04-30T09:11:14.012Z</time></trkpt><trkpt lat="40.611234336942005" lon="9.67897131466093"><ele>300.40000000000003</ele><time>2026-04-30T09:11:16.012Z</time></trkpt><trkpt lat="40.61117667115994" lon="9.678875271461797"><ele>298.2</ele><time>2026-04-30T09:11:18.012Z</time></trkpt><trkpt lat="40.61112007993413" lon="9.67879674912742"><ele>296.0</ele><time>2026-04-30T09:11:20.012Z</time></trkpt><trkpt lat="40.61105775355416" lon="9.678705555997157"><ele>295.2</ele><time>2026-04-30T09:11:22.012Z</time></trkpt><trkpt lat="40.610986110511455" lon="9.678596778018914"><ele>294.40000000000003</ele><time>2026-04-30T09:11:24.012Z</time></trkpt><trkpt lat="40.61090012215847" lon="9.678487029485037"><ele>293.6</ele><time>2026-04-30T09:11:26.012Z</time></trkpt><trkpt lat="40.61083284015483" lon="9.67837500266849"><ele>292.8</ele><time>2026-04-30T09:11:28.012Z</time></trkpt><trkpt lat="40.61081245291164" lon="9.678248782037443"><ele>292.0</ele><time>2026-04-30T09:11:30.012Z</time></trkpt><trkpt lat="40.61078751185395" lon="9.678088346633551"><ele>292.0</ele><time>2026-04-30T09:11:32.012Z</time></trkpt><trkpt lat="40.61078268729264" lon="9.67790958293441"><ele>292.0</ele><time>2026-04-30T09:11:34.012Z</time></trkpt><trkpt lat="40.61078384445327" lon="9.677748614437915"><ele>292.0</ele><time>2026-04-30T09:11:36.012Z</time></trkpt><trkpt lat="40.61079044364698" lon="9.677657631812396"><ele>292.0</ele><time>2026-04-30T09:11:37.013Z</time></trkpt><trkpt lat="40.610799563489486" lon="9.677568838193254"><ele>292.0</ele><time>2026-04-30T09:11:38.013Z</time></trkpt><trkpt lat="40.61080648793319" lon="9.677423160231374"><ele>291.16666666666663</ele><time>2026-04-30T09:11:40.013Z</time></trkpt><trkpt lat="40.61078866691724" lon="9.677312129558173"><ele>290.3333333333333</ele><time>2026-04-30T09:11:42.013Z</time></trkpt><trkpt lat="40.61077759333859" lon="9.67721051816465"><ele>289.5</ele><time>2026-04-30T09:11:44.013Z</time></trkpt><trkpt lat="40.610739570760416" lon="9.677111941083435"><ele>288.6666666666667</ele><time>2026-04-30T09:11:46.013Z</time></trkpt><trkpt lat="40.61069601538048" lon="9.677031293588104"><ele>287.83333333333337</ele><time>2026-04-30T09:11:48.013Z</time></trkpt><trkpt lat="40.610592015597724" lon="9.677026759138585"><ele>287.0</ele><time>2026-04-30T09:11:51.013Z</time></trkpt><trkpt lat="40.610493501757134" lon="9.677037569603103"><ele>287.0</ele><time>2026-04-30T09:11:53.013Z</time></trkpt><trkpt lat="40.61043039545951" lon="9.677047489914651"><ele>287.0</ele><time>2026-04-30T09:11:54.013Z</time></trkpt><trkpt lat="40.61031519712847" lon="9.677056481150235"><ele>287.0</ele><time>2026-04-30T09:11:56.013Z</time></trkpt><trkpt lat="40.610192394127694" lon="9.677068786915441"><ele>287.0</ele><time>2026-04-30T09:11:58.013Z</time></trkpt><trkpt lat="40.61012150705035" lon="9.677072353855376"><ele>287.0</ele><time>2026-04-30T09:11:59.013Z</time></trkpt><trkpt lat="40.61004120963864" lon="9.677076429562108"><ele>286.0</ele><time>2026-04-30T09:12:00.013Z</time></trkpt><trkpt lat="40.60996097843845" lon="9.677082874228969"><ele>285.0</ele><time>2026-04-30T09:12:01.013Z</time></trkpt><trkpt lat="40.60986491998945" lon="9.677099215793916"><ele>284.0</ele><time>2026-04-30T09:12:02.013Z</time></trkpt><trkpt lat="40.60977663170057" lon="9.677104554445616"><ele>283.0</ele><time>2026-04-30T09:12:03.013Z</time></trkpt><trkpt lat="40.6096782554669" lon="9.677114604577191"><ele>282.0</ele><time>2026-04-30T09:12:04.013Z</time></trkpt><trkpt lat="40.6095825388038" lon="9.677126240526016"><ele>282.0</ele><time>2026-04-30T09:12:05.013Z</time></trkpt><trkpt lat="40.60949354837989" lon="9.67713377464527"><ele>282.0</ele><time>2026-04-30T09:12:06.013Z</time></trkpt><trkpt lat="40.60939780047884" lon="9.677132253742828"><ele>282.0</ele><time>2026-04-30T09:12:08.013Z</time></trkpt><trkpt lat="40.6093283259394" lon="9.677139644414051"><ele>282.0</ele><time>2026-04-30T09:12:11.013Z</time></trkpt><trkpt lat="40.60925323339268" lon="9.677144306779786"><ele>282.0</ele><time>2026-04-30T09:12:14.013Z</time></trkpt><trkpt lat="40.60916130792745" lon="9.67714666266763"><ele>282.0</ele><time>2026-04-30T09:12:16.013Z</time></trkpt><trkpt lat="40.609036508380996" lon="9.677154804059057"><ele>285.4</ele><time>2026-04-30T09:12:18.013Z</time></trkpt><trkpt lat="40.60890366318583" lon="9.677148626116827"><ele>288.79999999999995</ele><time>2026-04-30T09:12:20.013Z</time></trkpt><trkpt lat="40.60883143457768" lon="9.677155605004153"><ele>292.2</ele><time>2026-04-30T09:12:21.013Z</time></trkpt><trkpt lat="40.608744608041995" lon="9.677139639584677"><ele>295.59999999999997</ele><time>2026-04-30T09:12:23.013Z</time></trkpt><trkpt lat="40.60867248102227" lon="9.677118309344445"><ele>299.0</ele><time>2026-04-30T09:12:26.013Z</time></trkpt><trkpt lat="40.608586427395615" lon="9.677109244292101"><ele>300.59999999999997</ele><time>2026-04-30T09:12:28.013Z</time></trkpt><trkpt lat="40.60852241258356" lon="9.67704987183779"><ele>302.2</ele><time>2026-04-30T09:12:30.013Z</time></trkpt><trkpt lat="40.60848252109862" lon="9.676959144872546"><ele>303.79999999999995</ele><time>2026-04-30T09:12:32.013Z</time></trkpt><trkpt lat="40.60844578963478" lon="9.676851264502842"><ele>305.4</ele><time>2026-04-30T09:12:35.013Z</time></trkpt><trkpt lat="40.60837777330856" lon="9.676756772603193"><ele>307.0</ele><time>2026-04-30T09:12:37.013Z</time></trkpt><trkpt lat="40.60831427879946" lon="9.676631479037175"><ele>307.3333333333333</ele><time>2026-04-30T09:12:39.013Z</time></trkpt><trkpt lat="40.60825768003206" lon="9.676530730355394"><ele>307.66666666666663</ele><time>2026-04-30T09:12:41.013Z</time></trkpt><trkpt lat="40.608185339606926" lon="9.676386589422078"><ele>308.0</ele><time>2026-04-30T09:12:43.013Z</time></trkpt><trkpt lat="40.60815104679322" lon="9.676302373413996"><ele>308.3333333333333</ele><time>2026-04-30T09:12:44.013Z</time></trkpt><trkpt lat="40.608126863192346" lon="9.676219591297274"><ele>308.6666666666667</ele><time>2026-04-30T09:12:45.014Z</time></trkpt><trkpt lat="40.608103700452006" lon="9.6761366447511"><ele>309.0</ele><time>2026-04-30T09:12:46.014Z</time></trkpt><trkpt lat="40.60808640646733" lon="9.67605643193793"><ele>308.8333333333333</ele><time>2026-04-30T09:12:47.014Z</time></trkpt><trkpt lat="40.60805513954712" lon="9.675919313327464"><ele>308.6666666666667</ele><time>2026-04-30T09:12:49.014Z</time></trkpt><trkpt lat="40.60802721898694" lon="9.675827003899638"><ele>308.5</ele><time>2026-04-30T09:12:51.014Z</time></trkpt><trkpt lat="40.60798341481139" lon="9.67574607894221"><ele>308.33333333333337</ele><time>2026-04-30T09:12:53.014Z</time></trkpt><trkpt lat="40.60792202772756" lon="9.675659833443769"><ele>308.1666666666667</ele><time>2026-04-30T09:12:55.014Z</time></trkpt><trkpt lat="40.60786314644698" lon="9.675569975621277"><ele>308.0</ele><time>2026-04-30T09:12:57.014Z</time></trkpt><trkpt lat="40.6077904261861" lon="9.675423708347653"><ele>308.0</ele><time>2026-04-30T09:12:59.014Z</time></trkpt><trkpt lat="40.60775398403786" lon="9.675335787205723"><ele>308.0</ele><time>2026-04-30T09:13:00.014Z</time></trkpt><trkpt lat="40.60771877955413" lon="9.675252568354432"><ele>308.0</ele><time>2026-04-30T09:13:01.014Z</time></trkpt><trkpt lat="40.60768830768711" lon="9.675176987599508"><ele>308.0</ele><time>2026-04-30T09:13:02.014Z</time></trkpt><trkpt lat="40.60766727168484" lon="9.675037188054375"><ele>308.0</ele><time>2026-04-30T09:13:04.014Z</time></trkpt><trkpt lat="40.60765408209236" lon="9.674922453864738"><ele>308.0</ele><time>2026-04-30T09:13:06.014Z</time></trkpt><trkpt lat="40.607645229627586" lon="9.674776881923707"><ele>307.8</ele><time>2026-04-30T09:13:08.014Z</time></trkpt><trkpt lat="40.60760293199853" lon="9.674646310367793"><ele>307.6</ele><time>2026-04-30T09:13:11.014Z</time></trkpt><trkpt lat="40.607535815416384" lon="9.674502207963668"><ele>307.4</ele><time>2026-04-30T09:13:13.014Z</time></trkpt><trkpt lat="40.60749464688759" lon="9.67442474237846"><ele>307.2</ele><time>2026-04-30T09:13:14.014Z</time></trkpt><trkpt lat="40.607429351117645" lon="9.674286614320156"><ele>307.0</ele><time>2026-04-30T09:13:16.014Z</time></trkpt><trkpt lat="40.60738993532023" lon="9.674161849230824"><ele>306.5</ele><time>2026-04-30T09:13:18.014Z</time></trkpt><trkpt lat="40.607369245899044" lon="9.674041379162349"><ele>306.0</ele><time>2026-04-30T09:13:20.014Z</time></trkpt><trkpt lat="40.60735888167806" lon="9.673948867117407"><ele>305.5</ele><time>2026-04-30T09:13:21.014Z</time></trkpt><trkpt lat="40.60736083880107" lon="9.673863259420907"><ele>305.0</ele><time>2026-04-30T09:13:22.014Z</time></trkpt><trkpt lat="40.60736648221263" lon="9.673776090743786"><ele>304.5</ele><time>2026-04-30T09:13:23.014Z</time></trkpt><trkpt lat="40.60737218498037" lon="9.673670964456665"><ele>304.0</ele><time>2026-04-30T09:13:24.014Z</time></trkpt><trkpt lat="40.6073900123253" lon="9.673574667151925"><ele>304.0</ele><time>2026-04-30T09:13:25.014Z</time></trkpt><trkpt lat="40.6074128037617" lon="9.673484713025253"><ele>304.0</ele><time>2026-04-30T09:13:26.014Z</time></trkpt><trkpt lat="40.607475732929636" lon="9.673355190714389"><ele>304.0</ele><time>2026-04-30T09:13:28.014Z</time></trkpt><trkpt lat="40.60751344148852" lon="9.673212077716569"><ele>304.0</ele><time>2026-04-30T09:13:30.014Z</time></trkpt><trkpt lat="40.60752642666493" lon="9.673075659017863"><ele>304.0</ele><time>2026-04-30T09:13:32.014Z</time></trkpt><trkpt lat="40.607522397249156" lon="9.672989495146528"><ele>304.0</ele><time>2026-04-30T09:13:33.014Z</time></trkpt><trkpt lat="40.60750085519013" lon="9.672822674600933"><ele>304.0</ele><time>2026-04-30T09:13:35.014Z</time></trkpt><trkpt lat="40.60748473712305" lon="9.672724884565037"><ele>304.0</ele><time>2026-04-30T09:13:36.014Z</time></trkpt><trkpt lat="40.60748050773911" lon="9.672634393336283"><ele>304.0</ele><time>2026-04-30T09:13:37.014Z</time></trkpt><trkpt lat="40.60747261209139" lon="9.672548756721206"><ele>304.0</ele><time>2026-04-30T09:13:38.014Z</time></trkpt><trkpt lat="40.60746331668171" lon="9.672393748714725"><ele>303.5</ele><time>2026-04-30T09:13:40.014Z</time></trkpt><trkpt lat="40.607457477830245" lon="9.672311127174341"><ele>303.0</ele><time>2026-04-30T09:13:41.014Z</time></trkpt><trkpt lat="40.607447381664635" lon="9.67219140110619"><ele>302.5</ele><time>2026-04-30T09:13:43.014Z</time></trkpt><trkpt lat="40.60737052498404" lon="9.672116718710164"><ele>302.0</ele><time>2026-04-30T09:13:46.014Z</time></trkpt><trkpt lat="40.60728712230965" lon="9.672060957949839"><ele>301.5</ele><time>2026-04-30T09:13:48.014Z</time></trkpt><trkpt lat="40.607221612410015" lon="9.6720066367992"><ele>301.0</ele><time>2026-04-30T09:13:49.014Z</time></trkpt><trkpt lat="40.607157162818524" lon="9.671951026146244"><ele>300.0</ele><time>2026-04-30T09:13:50.014Z</time></trkpt><trkpt lat="40.60711073310739" lon="9.671867338150134"><ele>299.0</ele><time>2026-04-30T09:13:52.014Z</time></trkpt><trkpt lat="40.60708837041782" lon="9.671723250163348"><ele>298.0</ele><time>2026-04-30T09:13:54.015Z</time></trkpt><trkpt lat="40.607076106452276" lon="9.671599729213453"><ele>297.0</ele><time>2026-04-30T09:13:56.015Z</time></trkpt><trkpt lat="40.607072200202154" lon="9.671497319926475"><ele>296.0</ele><time>2026-04-30T09:13:58.015Z</time></trkpt><trkpt lat="40.6070719172936" lon="9.671399030533461"><ele>295.0</ele><time>2026-04-30T09:14:01.015Z</time></trkpt><trkpt lat="40.60708419953968" lon="9.671312923139089"><ele>295.0</ele><time>2026-04-30T09:14:04.015Z</time></trkpt><trkpt lat="40.60709609380111" lon="9.67121426143647"><ele>295.0</ele><time>2026-04-30T09:14:07.015Z</time></trkpt><trkpt lat="40.60709667410052" lon="9.671122017604667"><ele>295.0</ele><time>2026-04-30T09:14:09.015Z</time></trkpt><trkpt lat="40.607079076472566" lon="9.671011699501966"><ele>295.0</ele><time>2026-04-30T09:14:11.015Z</time></trkpt><trkpt lat="40.6070626546205" lon="9.670916484822046"><ele>295.0</ele><time>2026-04-30T09:14:13.015Z</time></trkpt><trkpt lat="40.607026207923596" lon="9.670805002607878"><ele>295.0</ele><time>2026-04-30T09:14:16.015Z</time></trkpt><trkpt lat="40.60699016140313" lon="9.670704867219195"><ele>295.4</ele><time>2026-04-30T09:14:18.015Z</time></trkpt><trkpt lat="40.606960981066834" lon="9.670621587091965"><ele>295.8</ele><time>2026-04-30T09:14:20.015Z</time></trkpt><trkpt lat="40.60693075926809" lon="9.670533574702416"><ele>296.2</ele><time>2026-04-30T09:14:22.015Z</time></trkpt><trkpt lat="40.60688537680873" lon="9.67042948782695"><ele>296.6</ele><time>2026-04-30T09:14:26.015Z</time></trkpt><trkpt lat="40.60684964656391" lon="9.670297770978708"><ele>297.0</ele><time>2026-04-30T09:14:28.015Z</time></trkpt><trkpt lat="40.60681219575499" lon="9.670162448537768"><ele>295.3333333333333</ele><time>2026-04-30T09:14:30.015Z</time></trkpt><trkpt lat="40.606766738388416" lon="9.670019983504385"><ele>293.6666666666667</ele><time>2026-04-30T09:14:32.015Z</time></trkpt><trkpt lat="40.60673123165092" lon="9.669945224735423"><ele>292.0</ele><time>2026-04-30T09:14:33.015Z</time></trkpt><trkpt lat="40.60670133177266" lon="9.669867641799414"><ele>290.33333333333337</ele><time>2026-04-30T09:14:34.015Z</time></trkpt><trkpt lat="40.60666802762819" lon="9.669782777989449"><ele>288.6666666666667</ele><time>2026-04-30T09:14:35.015Z</time></trkpt><trkpt lat="40.60663149702307" lon="9.66969286848201"><ele>287.0</ele><time>2026-04-30T09:14:36.015Z</time></trkpt><trkpt lat="40.6066050707117" lon="9.669612721207063"><ele>287.0</ele><time>2026-04-30T09:14:37.015Z</time></trkpt><trkpt lat="40.60657406481011" lon="9.66953626275429"><ele>287.0</ele><time>2026-04-30T09:14:38.015Z</time></trkpt><trkpt lat="40.60651024629318" lon="9.66939759163171"><ele>287.0</ele><time>2026-04-30T09:14:40.015Z</time></trkpt><trkpt lat="40.606445675053" lon="9.669254090401852"><ele>287.0</ele><time>2026-04-30T09:14:42.015Z</time></trkpt><trkpt lat="40.6064603465784" lon="9.669166775246921"><ele>287.0</ele><time>2026-04-30T09:14:44.015Z</time></trkpt><trkpt lat="40.6064366080034" lon="9.66908093198891"><ele>286.14285714285717</ele><time>2026-04-30T09:15:09.016Z</time></trkpt><trkpt lat="40.60643090383082" lon="9.668986761535812"><ele>285.2857142857143</ele><time>2026-04-30T09:15:11.016Z</time></trkpt><trkpt lat="40.60645308756473" lon="9.668885365434855"><ele>284.42857142857144</ele><time>2026-04-30T09:15:14.016Z</time></trkpt><trkpt lat="40.606472470618804" lon="9.668799613076136"><ele>283.57142857142856</ele><time>2026-04-30T09:15:17.016Z</time></trkpt><trkpt lat="40.6065016914193" lon="9.668711234148496"><ele>282.7142857142857</ele><time>2026-04-30T09:15:21.016Z</time></trkpt><trkpt lat="40.60651741197184" lon="9.668604553740549"><ele>281.8571428571429</ele><time>2026-04-30T09:15:24.016Z</time></trkpt><trkpt lat="40.60652606413389" lon="9.668519062393555"><ele>281.0</ele><time>2026-04-30T09:15:27.016Z</time></trkpt><trkpt lat="40.606553923991136" lon="9.668435210984448"><ele>279.6666666666667</ele><time>2026-04-30T09:15:30.016Z</time></trkpt><trkpt lat="40.60658901793247" lon="9.668352864644328"><ele>278.33333333333337</ele><time>2026-04-30T09:15:33.016Z</time></trkpt><trkpt lat="40.606650488949555" lon="9.668261849474066"><ele>277.0</ele><time>2026-04-30T09:15:37.016Z</time></trkpt><trkpt lat="40.6066985421826" lon="9.668199047337103"><ele>275.6666666666667</ele><time>2026-04-30T09:15:39.016Z</time></trkpt><trkpt lat="40.60675087320181" lon="9.66811704088109"><ele>274.3333333333333</ele><time>2026-04-30T09:15:42.016Z</time></trkpt><trkpt lat="40.60680245580275" lon="9.668033143211582"><ele>273.0</ele><time>2026-04-30T09:15:45.016Z</time></trkpt><trkpt lat="40.60686151912157" lon="9.66799342195214"><ele>273.0</ele><time>2026-04-30T09:15:47.016Z</time></trkpt><trkpt lat="40.606913969365955" lon="9.66793855749918"><ele>273.0</ele><time>2026-04-30T09:15:49.016Z</time></trkpt><trkpt lat="40.606987230384725" lon="9.667859766955926"><ele>273.0</ele><time>2026-04-30T09:15:51.016Z</time></trkpt><trkpt lat="40.60708076537621" lon="9.667771839618409"><ele>273.0</ele><time>2026-04-30T09:15:53.016Z</time></trkpt><trkpt lat="40.60716159610814" lon="9.667664555417108"><ele>273.0</ele><time>2026-04-30T09:15:55.016Z</time></trkpt><trkpt lat="40.607189911214164" lon="9.66752192612422"><ele>265.8</ele><time>2026-04-30T09:15:57.016Z</time></trkpt><trkpt lat="40.60720680601101" lon="9.66735565019652"><ele>258.6</ele><time>2026-04-30T09:15:59.016Z</time></trkpt><trkpt lat="40.60723193592191" lon="9.667274559247417"><ele>251.39999999999998</ele><time>2026-04-30T09:16:00.016Z</time></trkpt><trkpt lat="40.60727031966989" lon="9.667203067588428"><ele>244.2</ele><time>2026-04-30T09:16:01.016Z</time></trkpt><trkpt lat="40.607334315075775" lon="9.667089551403537"><ele>237.0</ele><time>2026-04-30T09:16:03.016Z</time></trkpt><trkpt lat="40.6074208782543" lon="9.66701240560421"><ele>237.0</ele><time>2026-04-30T09:16:05.016Z</time></trkpt><trkpt lat="40.60753402393288" lon="9.666951839815765"><ele>237.0</ele><time>2026-04-30T09:16:07.016Z</time></trkpt><trkpt lat="40.607644018662675" lon="9.666897751242047"><ele>237.0</ele><time>2026-04-30T09:16:09.016Z</time></trkpt><trkpt lat="40.60772968369657" lon="9.666836319777158"><ele>237.0</ele><time>2026-04-30T09:16:11.017Z</time></trkpt><trkpt lat="40.60779008289165" lon="9.666747727665257"><ele>237.0</ele><time>2026-04-30T09:16:13.017Z</time></trkpt><trkpt lat="40.60786938884043" lon="9.666667251340307"><ele>233.0</ele><time>2026-04-30T09:16:15.017Z</time></trkpt><trkpt lat="40.607943344753366" lon="9.666595427899574"><ele>229.0</ele><time>2026-04-30T09:16:17.017Z</time></trkpt><trkpt lat="40.60803822446849" lon="9.666552316243735"><ele>225.0</ele><time>2026-04-30T09:16:19.017Z</time></trkpt><trkpt lat="40.60813056119821" lon="9.666526106678258"><ele>221.0</ele><time>2026-04-30T09:16:21.017Z</time></trkpt><trkpt lat="40.608207745650574" lon="9.666476174404057"><ele>217.0</ele><time>2026-04-30T09:16:23.017Z</time></trkpt><trkpt lat="40.60827896301688" lon="9.66638396764563"><ele>217.0</ele><time>2026-04-30T09:16:25.017Z</time></trkpt><trkpt lat="40.60834056435122" lon="9.666251351326686"><ele>217.0</ele><time>2026-04-30T09:16:27.017Z</time></trkpt><trkpt lat="40.6083842047894" lon="9.666187536618635"><ele>217.0</ele><time>2026-04-30T09:16:28.017Z</time></trkpt><trkpt lat="40.608480485356814" lon="9.666089034450023"><ele>217.0</ele><time>2026-04-30T09:16:30.017Z</time></trkpt><trkpt lat="40.60860229425237" lon="9.666058957107166"><ele>217.0</ele><time>2026-04-30T09:16:32.017Z</time></trkpt><trkpt lat="40.60871749300621" lon="9.66602045044565"><ele>215.49999999999997</ele><time>2026-04-30T09:16:34.017Z</time></trkpt><trkpt lat="40.60878765883352" lon="9.665982471640465"><ele>214.0</ele><time>2026-04-30T09:16:35.017Z</time></trkpt><trkpt lat="40.60884291475249" lon="9.665941835073935"><ele>212.5</ele><time>2026-04-30T09:16:36.017Z</time></trkpt><trkpt lat="40.608909213140656" lon="9.665842798018346"><ele>211.0</ele><time>2026-04-30T09:16:38.017Z</time></trkpt><trkpt lat="40.60892961071439" lon="9.665759515806045"><ele>209.49999999999997</ele><time>2026-04-30T09:16:39.017Z</time></trkpt><trkpt lat="40.60894354564532" lon="9.665584974541693"><ele>208.0</ele><time>2026-04-30T09:16:41.017Z</time></trkpt><trkpt lat="40.60893470531587" lon="9.665498437534247"><ele>207.99999999999997</ele><time>2026-04-30T09:16:42.017Z</time></trkpt><trkpt lat="40.60891594281973" lon="9.66537916067365"><ele>208.0</ele><time>2026-04-30T09:16:43.017Z</time></trkpt><trkpt lat="40.60890274495784" lon="9.665271987027875"><ele>208.0</ele><time>2026-04-30T09:16:44.017Z</time></trkpt><trkpt lat="40.6088816624278" lon="9.66516351455483"><ele>208.0</ele><time>2026-04-30T09:16:45.017Z</time></trkpt><trkpt lat="40.60885599973355" lon="9.665075879130965"><ele>207.99999999999997</ele><time>2026-04-30T09:16:46.017Z</time></trkpt><trkpt lat="40.608824151973664" lon="9.664974902637637"><ele>208.0</ele><time>2026-04-30T09:16:47.017Z</time></trkpt><trkpt lat="40.608781797951785" lon="9.664896857670263"><ele>206.66666666666666</ele><time>2026-04-30T09:16:48.017Z</time></trkpt><trkpt lat="40.60872813065173" lon="9.664817527996215"><ele>205.33333333333331</ele><time>2026-04-30T09:16:49.017Z</time></trkpt><trkpt lat="40.60866354660274" lon="9.664756417327096"><ele>204.0</ele><time>2026-04-30T09:16:50.017Z</time></trkpt><trkpt lat="40.60859273556002" lon="9.664701400074899"><ele>202.66666666666669</ele><time>2026-04-30T09:16:51.017Z</time></trkpt><trkpt lat="40.608525706184885" lon="9.664662618173715"><ele>201.33333333333334</ele><time>2026-04-30T09:16:52.017Z</time></trkpt><trkpt lat="40.60844896831916" lon="9.664644319085477"><ele>200.0</ele><time>2026-04-30T09:16:53.017Z</time></trkpt><trkpt lat="40.60837303735071" lon="9.664605059891102"><ele>200.8</ele><time>2026-04-30T09:16:54.017Z</time></trkpt><trkpt lat="40.60831957184682" lon="9.664553527549879"><ele>201.6</ele><time>2026-04-30T09:16:55.017Z</time></trkpt><trkpt lat="40.60824665536721" lon="9.664408996816244"><ele>202.39999999999998</ele><time>2026-04-30T09:16:57.017Z</time></trkpt><trkpt lat="40.60820695461527" lon="9.664324320311676"><ele>203.2</ele><time>2026-04-30T09:16:58.017Z</time></trkpt><trkpt lat="40.60814628032309" lon="9.6642317971861"><ele>204.0</ele><time>2026-04-30T09:16:59.017Z</time></trkpt><trkpt lat="40.60808105325636" lon="9.664136132054665"><ele>204.0</ele><time>2026-04-30T09:17:00.017Z</time></trkpt><trkpt lat="40.60801631985746" lon="9.664053787753263"><ele>204.0</ele><time>2026-04-30T09:17:01.017Z</time></trkpt><trkpt lat="40.607958793809026" lon="9.663989865082163"><ele>204.0</ele><time>2026-04-30T09:17:02.017Z</time></trkpt><trkpt lat="40.607891441030446" lon="9.663934719349594"><ele>204.0</ele><time>2026-04-30T09:17:03.017Z</time></trkpt><trkpt lat="40.60781887737398" lon="9.663899441272937"><ele>204.0</ele><time>2026-04-30T09:17:04.017Z</time></trkpt><trkpt lat="40.60775342937395" lon="9.663895239766154"><ele>204.0</ele><time>2026-04-30T09:17:05.017Z</time></trkpt><trkpt lat="40.607691247137275" lon="9.663913716256133"><ele>208.16666666666666</ele><time>2026-04-30T09:17:06.017Z</time></trkpt><trkpt lat="40.607627378830266" lon="9.66393750299952"><ele>212.33333333333331</ele><time>2026-04-30T09:17:07.017Z</time></trkpt><trkpt lat="40.60754812521058" lon="9.663959463541401"><ele>216.5</ele><time>2026-04-30T09:17:08.017Z</time></trkpt><trkpt lat="40.60746702373643" lon="9.66397882182238"><ele>220.66666666666666</ele><time>2026-04-30T09:17:09.017Z</time></trkpt><trkpt lat="40.607402990140564" lon="9.663989362033412"><ele>224.83333333333331</ele><time>2026-04-30T09:17:10.017Z</time></trkpt><trkpt lat="40.607311480078714" lon="9.663943889215878"><ele>229.0</ele><time>2026-04-30T09:17:12.017Z</time></trkpt><trkpt lat="40.60723320299266" lon="9.663802368650527"><ele>228.99999999999997</ele><time>2026-04-30T09:17:14.017Z</time></trkpt><trkpt lat="40.60720161221018" lon="9.663711546482771"><ele>229.0</ele><time>2026-04-30T09:17:15.017Z</time></trkpt><trkpt lat="40.60714882290521" lon="9.663634162547977"><ele>229.0</ele><time>2026-04-30T09:17:16.017Z</time></trkpt><trkpt lat="40.60708477347493" lon="9.663579159143858"><ele>229.0</ele><time>2026-04-30T09:17:17.017Z</time></trkpt><trkpt lat="40.60702712418131" lon="9.663505693560063"><ele>228.99999999999997</ele><time>2026-04-30T09:17:18.018Z</time></trkpt><trkpt lat="40.60697093762797" lon="9.663417687070297"><ele>229.0</ele><time>2026-04-30T09:17:19.018Z</time></trkpt><trkpt lat="40.60690822659328" lon="9.663334537015926"><ele>230.79999999999998</ele><time>2026-04-30T09:17:20.018Z</time></trkpt><trkpt lat="40.60685389128407" lon="9.663273583397094"><ele>232.59999999999997</ele><time>2026-04-30T09:17:21.018Z</time></trkpt><trkpt lat="40.60680667618757" lon="9.663146848696075"><ele>234.4</ele><time>2026-04-30T09:17:23.018Z</time></trkpt><trkpt lat="40.60685956232845" lon="9.663016597345097"><ele>236.2</ele><time>2026-04-30T09:17:25.018Z</time></trkpt><trkpt lat="40.60697026501453" lon="9.662979643027871"><ele>238.0</ele><time>2026-04-30T09:17:27.018Z</time></trkpt><trkpt lat="40.60703872950587" lon="9.662978481165617"><ele>234.83333333333331</ele><time>2026-04-30T09:17:28.018Z</time></trkpt><trkpt lat="40.60711714687774" lon="9.662986642423517"><ele>231.66666666666666</ele><time>2026-04-30T09:17:29.018Z</time></trkpt><trkpt lat="40.607184205925805" lon="9.662990528694209"><ele>228.5</ele><time>2026-04-30T09:17:30.018Z</time></trkpt><trkpt lat="40.60730204494399" lon="9.662938176708128"><ele>225.33333333333331</ele><time>2026-04-30T09:17:32.018Z</time></trkpt><trkpt lat="40.607350637005055" lon="9.662873305772491"><ele>222.16666666666666</ele><time>2026-04-30T09:17:33.018Z</time></trkpt><trkpt lat="40.60741874078891" lon="9.662801789734065"><ele>219.0</ele><time>2026-04-30T09:17:34.018Z</time></trkpt><trkpt lat="40.607495924616316" lon="9.662737123521174"><ele>219.0</ele><time>2026-04-30T09:17:35Z</time></trkpt><trkpt lat="40.607562841917435" lon="9.662653141098597"><ele>219.0</ele><time>2026-04-30T09:17:36Z</time></trkpt><trkpt lat="40.60762325163564" lon="9.662563302797887"><ele>219.0</ele><time>2026-04-30T09:17:37.001Z</time></trkpt><trkpt lat="40.6076886264239" lon="9.662479771210739"><ele>219.0</ele><time>2026-04-30T09:17:38.001Z</time></trkpt><trkpt lat="40.60773783631452" lon="9.662389937252705"><ele>219.0</ele><time>2026-04-30T09:17:39.001Z</time></trkpt><trkpt lat="40.60777998993974" lon="9.662303260014053"><ele>219.0</ele><time>2026-04-30T09:17:40.001Z</time></trkpt><trkpt lat="40.60782176782635" lon="9.662238540730918"><ele>215.66666666666666</ele><time>2026-04-30T09:17:41.001Z</time></trkpt><trkpt lat="40.6079315472951" lon="9.662213972389228"><ele>212.33333333333331</ele><time>2026-04-30T09:17:43.001Z</time></trkpt><trkpt lat="40.60800490850199" lon="9.662234169153358"><ele>209.0</ele><time>2026-04-30T09:17:44.001Z</time></trkpt><trkpt lat="40.60808687484745" lon="9.662267256974447"><ele>205.66666666666666</ele><time>2026-04-30T09:17:45.001Z</time></trkpt><trkpt lat="40.6081541678114" lon="9.662280712295109"><ele>202.33333333333331</ele><time>2026-04-30T09:17:46.001Z</time></trkpt><trkpt lat="40.60824079572762" lon="9.662282092858943"><ele>199.0</ele><time>2026-04-30T09:17:47.001Z</time></trkpt><trkpt lat="40.60830360051452" lon="9.662256601033748"><ele>198.99999999999997</ele><time>2026-04-30T09:17:48.001Z</time></trkpt><trkpt lat="40.608378001809" lon="9.662235721251644"><ele>199.0</ele><time>2026-04-30T09:17:49.001Z</time></trkpt><trkpt lat="40.60845477520572" lon="9.662202560839239"><ele>199.0</ele><time>2026-04-30T09:17:50.001Z</time></trkpt><trkpt lat="40.60853597849652" lon="9.662161012892216"><ele>199.0</ele><time>2026-04-30T09:17:51.001Z</time></trkpt><trkpt lat="40.6086223282169" lon="9.662136421011047"><ele>198.99999999999997</ele><time>2026-04-30T09:17:52.001Z</time></trkpt><trkpt lat="40.608698644094986" lon="9.662134581614072"><ele>199.0</ele><time>2026-04-30T09:17:53.001Z</time></trkpt><trkpt lat="40.60877264843967" lon="9.662141183009659"><ele>197.99999999999997</ele><time>2026-04-30T09:17:54.001Z</time></trkpt><trkpt lat="40.6088543119634" lon="9.66215473591213"><ele>197.0</ele><time>2026-04-30T09:17:55.001Z</time></trkpt><trkpt lat="40.60892868186093" lon="9.662152176999424"><ele>196.0</ele><time>2026-04-30T09:17:56.001Z</time></trkpt><trkpt lat="40.609011761278715" lon="9.662083399818687"><ele>195.0</ele><time>2026-04-30T09:17:58.001Z</time></trkpt><trkpt lat="40.60906188546697" lon="9.661961506236326"><ele>193.99999999999997</ele><time>2026-04-30T09:18:00.001Z</time></trkpt><trkpt lat="40.60908916910844" lon="9.66187674934858"><ele>193.0</ele><time>2026-04-30T09:18:01.001Z</time></trkpt><trkpt lat="40.6091138859583" lon="9.661763378414449"><ele>192.99999999999997</ele><time>2026-04-30T09:18:02.001Z</time></trkpt><trkpt lat="40.60912964491038" lon="9.661643722911208"><ele>193.0</ele><time>2026-04-30T09:18:03.001Z</time></trkpt><trkpt lat="40.609147820290154" lon="9.661521409804495"><ele>193.0</ele><time>2026-04-30T09:18:04.001Z</time></trkpt><trkpt lat="40.609173754360846" lon="9.661406752365663"><ele>193.0</ele><time>2026-04-30T09:18:05.001Z</time></trkpt><trkpt lat="40.60919029312073" lon="9.661295480146944"><ele>192.99999999999997</ele><time>2026-04-30T09:18:06.001Z</time></trkpt><trkpt lat="40.60920208876753" lon="9.661186987072737"><ele>193.0</ele><time>2026-04-30T09:18:07.001Z</time></trkpt><trkpt lat="40.60920678101239" lon="9.661076741952476"><ele>194.49999999999997</ele><time>2026-04-30T09:18:08.001Z</time></trkpt><trkpt lat="40.60920089597857" lon="9.660974973313296"><ele>196.0</ele><time>2026-04-30T09:18:09.001Z</time></trkpt><trkpt lat="40.60921479154417" lon="9.660884721582606"><ele>197.5</ele><time>2026-04-30T09:18:10.001Z</time></trkpt><trkpt lat="40.60924447350379" lon="9.66080467806108"><ele>199.0</ele><time>2026-04-30T09:18:11.001Z</time></trkpt><trkpt lat="40.60930219135152" lon="9.660750346403615"><ele>200.49999999999997</ele><time>2026-04-30T09:18:12.001Z</time></trkpt><trkpt lat="40.609401146401886" lon="9.660699563945839"><ele>202.0</ele><time>2026-04-30T09:18:14.001Z</time></trkpt><trkpt lat="40.60953413433533" lon="9.660698029464669"><ele>197.2</ele><time>2026-04-30T09:18:16.001Z</time></trkpt><trkpt lat="40.609598818215375" lon="9.660708123135375"><ele>192.39999999999998</ele><time>2026-04-30T09:18:17.001Z</time></trkpt><trkpt lat="40.60969773707641" lon="9.660667667272437"><ele>187.60000000000002</ele><time>2026-04-30T09:18:19.001Z</time></trkpt><trkpt lat="40.60973757356902" lon="9.660572537724823"><ele>182.8</ele><time>2026-04-30T09:18:20.999Z</time></trkpt><trkpt lat="40.6097835638735" lon="9.66045747813776"><ele>178.0</ele><time>2026-04-30T09:18:23Z</time></trkpt><trkpt lat="40.60982823814172" lon="9.660303668802378"><ele>183.16666666666669</ele><time>2026-04-30T09:18:25Z</time></trkpt><trkpt lat="40.60988801373794" lon="9.66016554176705"><ele>188.33333333333334</ele><time>2026-04-30T09:18:27Z</time></trkpt><trkpt lat="40.60993872052541" lon="9.660104964447646"><ele>193.5</ele><time>2026-04-30T09:18:27.999Z</time></trkpt><trkpt lat="40.610000744883344" lon="9.660040738253205"><ele>198.66666666666669</ele><time>2026-04-30T09:18:28.999Z</time></trkpt><trkpt lat="40.61006410812095" lon="9.659986475127068"><ele>203.83333333333334</ele><time>2026-04-30T09:18:30Z</time></trkpt><trkpt lat="40.61012292902492" lon="9.659940036960338"><ele>209.0</ele><time>2026-04-30T09:18:30.999Z</time></trkpt><trkpt lat="40.61024057403194" lon="9.659924606407643"><ele>209.2</ele><time>2026-04-30T09:18:33Z</time></trkpt><trkpt lat="40.61037238708837" lon="9.65997684502212"><ele>209.39999999999998</ele><time>2026-04-30T09:18:35Z</time></trkpt><trkpt lat="40.610439979313014" lon="9.66002767104346"><ele>209.6</ele><time>2026-04-30T09:18:36Z</time></trkpt><trkpt lat="40.61051563699417" lon="9.660090423201805"><ele>209.8</ele><time>2026-04-30T09:18:37Z</time></trkpt><trkpt lat="40.61058236291225" lon="9.660151402425743"><ele>210.0</ele><time>2026-04-30T09:18:38Z</time></trkpt><trkpt lat="40.6106623495491" lon="9.660194471787282"><ele>210.0</ele><time>2026-04-30T09:18:39Z</time></trkpt><trkpt lat="40.61074080512443" lon="9.660227889190443"><ele>210.0</ele><time>2026-04-30T09:18:40Z</time></trkpt><trkpt lat="40.610816518372346" lon="9.66025669271627"><ele>210.0</ele><time>2026-04-30T09:18:41Z</time></trkpt><trkpt lat="40.61090576326543" lon="9.66027503500507"><ele>210.0</ele><time>2026-04-30T09:18:42Z</time></trkpt><trkpt lat="40.61097272447507" lon="9.660278670968596"><ele>210.0</ele><time>2026-04-30T09:18:43Z</time></trkpt><trkpt lat="40.61108689701891" lon="9.660238439238949"><ele>210.0</ele><time>2026-04-30T09:18:45Z</time></trkpt><trkpt lat="40.61115995829897" lon="9.66021418673562"><ele>210.0</ele><time>2026-04-30T09:18:46Z</time></trkpt><trkpt lat="40.611241053432764" lon="9.660187244091906"><ele>210.0</ele><time>2026-04-30T09:18:47Z</time></trkpt><trkpt lat="40.61131627117138" lon="9.66014834760644"><ele>210.0</ele><time>2026-04-30T09:18:48Z</time></trkpt><trkpt lat="40.61139559276617" lon="9.660095253756454"><ele>210.0</ele><time>2026-04-30T09:18:49Z</time></trkpt><trkpt lat="40.61147147491069" lon="9.660048061605261"><ele>210.0</ele><time>2026-04-30T09:18:50Z</time></trkpt><trkpt lat="40.61154803246229" lon="9.66000277050439"><ele>210.0</ele><time>2026-04-30T09:18:51Z</time></trkpt><trkpt lat="40.6116271814261" lon="9.659966162330699"><ele>210.0</ele><time>2026-04-30T09:18:52Z</time></trkpt><trkpt lat="40.611698089154956" lon="9.659928736545469"><ele>210.0</ele><time>2026-04-30T09:18:53Z</time></trkpt><trkpt lat="40.61176372480731" lon="9.659883630058456"><ele>210.0</ele><time>2026-04-30T09:18:54Z</time></trkpt><trkpt lat="40.611829399159056" lon="9.659771960696169"><ele>210.0</ele><time>2026-04-30T09:18:56Z</time></trkpt><trkpt lat="40.611803781128316" lon="9.659661350776043"><ele>210.0</ele><time>2026-04-30T09:18:59Z</time></trkpt><trkpt lat="40.611734086771" lon="9.659550880104032"><ele>210.5</ele><time>2026-04-30T09:19:01Z</time></trkpt><trkpt lat="40.611663675635384" lon="9.659413285097"><ele>211.0</ele><time>2026-04-30T09:19:03Z</time></trkpt><trkpt lat="40.61160466927301" lon="9.659273583000205"><ele>211.5</ele><time>2026-04-30T09:19:05Z</time></trkpt><trkpt lat="40.611571775084506" lon="9.659126176133705"><ele>212.0</ele><time>2026-04-30T09:19:07Z</time></trkpt><trkpt lat="40.6115367400722" lon="9.658969424317194"><ele>212.0</ele><time>2026-04-30T09:19:09Z</time></trkpt><trkpt lat="40.611503262875125" lon="9.658874206682384"><ele>212.0</ele><time>2026-04-30T09:19:10Z</time></trkpt><trkpt lat="40.61146943682711" lon="9.658786333872253"><ele>212.0</ele><time>2026-04-30T09:19:11Z</time></trkpt><trkpt lat="40.61140973213827" lon="9.658682907012343"><ele>212.0</ele><time>2026-04-30T09:19:13Z</time></trkpt><trkpt lat="40.61131076464559" lon="9.658645188985757"><ele>212.0</ele><time>2026-04-30T09:19:15Z</time></trkpt><trkpt lat="40.61122087834202" lon="9.658684008149963"><ele>213.66666666666669</ele><time>2026-04-30T09:19:17Z</time></trkpt><trkpt lat="40.61110359760399" lon="9.658747638657083"><ele>215.33333333333334</ele><time>2026-04-30T09:19:19Z</time></trkpt><trkpt lat="40.611041814166576" lon="9.65877942181652"><ele>217.0</ele><time>2026-04-30T09:19:20Z</time></trkpt><trkpt lat="40.61097026695983" lon="9.658758265888947"><ele>218.66666666666669</ele><time>2026-04-30T09:19:21Z</time></trkpt><trkpt lat="40.61090681372907" lon="9.658740303184738"><ele>220.33333333333334</ele><time>2026-04-30T09:19:22Z</time></trkpt><trkpt lat="40.61082611824797" lon="9.658729784790081"><ele>222.0</ele><time>2026-04-30T09:19:23Z</time></trkpt><trkpt lat="40.610739580667754" lon="9.658711606126541"><ele>222.0</ele><time>2026-04-30T09:19:24Z</time></trkpt><trkpt lat="40.61067216691287" lon="9.658714331070977"><ele>222.0</ele><time>2026-04-30T09:19:25Z</time></trkpt><trkpt lat="40.61060380896729" lon="9.658753808814577"><ele>222.0</ele><time>2026-04-30T09:19:26Z</time></trkpt><trkpt lat="40.61052958927523" lon="9.658815979957373"><ele>222.0</ele><time>2026-04-30T09:19:27Z</time></trkpt><trkpt lat="40.6104631044394" lon="9.658850750892586"><ele>222.0</ele><time>2026-04-30T09:19:28Z</time></trkpt><trkpt lat="40.61039587056559" lon="9.658881446855345"><ele>222.0</ele><time>2026-04-30T09:19:29Z</time></trkpt><trkpt lat="40.61032232489326" lon="9.658859726013244"><ele>222.0</ele><time>2026-04-30T09:19:30Z</time></trkpt><trkpt lat="40.61022929551113" lon="9.658776149064005"><ele>222.83333333333334</ele><time>2026-04-30T09:19:32Z</time></trkpt><trkpt lat="40.61016817729651" lon="9.658718794648408"><ele>223.66666666666669</ele><time>2026-04-30T09:19:33Z</time></trkpt><trkpt lat="40.61012112591746" lon="9.658641786749783"><ele>224.5</ele><time>2026-04-30T09:19:34Z</time></trkpt><trkpt lat="40.610081986288705" lon="9.658568818737335"><ele>225.33333333333334</ele><time>2026-04-30T09:19:35Z</time></trkpt><trkpt lat="40.610038995987324" lon="9.65848398433568"><ele>226.16666666666669</ele><time>2026-04-30T09:19:36Z</time></trkpt><trkpt lat="40.60999121423394" lon="9.65837886046019"><ele>227.0</ele><time>2026-04-30T09:19:37Z</time></trkpt><trkpt lat="40.60995037092445" lon="9.65831226890306"><ele>225.00000000000003</ele><time>2026-04-30T09:19:38Z</time></trkpt><trkpt lat="40.60990517840415" lon="9.65825398984842"><ele>223.0</ele><time>2026-04-30T09:19:39Z</time></trkpt><trkpt lat="40.6098505191124" lon="9.658201920373005"><ele>221.0</ele><time>2026-04-30T09:19:40Z</time></trkpt><trkpt lat="40.60974194784335" lon="9.658145939458562"><ele>219.0</ele><time>2026-04-30T09:19:42.001Z</time></trkpt><trkpt lat="40.60967782608658" lon="9.658135045376989"><ele>217.00000000000003</ele><time>2026-04-30T09:19:43.001Z</time></trkpt><trkpt lat="40.609604414404615" lon="9.65813334718297"><ele>215.0</ele><time>2026-04-30T09:19:44.001Z</time></trkpt><trkpt lat="40.60953873152788" lon="9.658170747305908"><ele>217.66666666666669</ele><time>2026-04-30T09:19:45.001Z</time></trkpt><trkpt lat="40.60947478922436" lon="9.658221451994233"><ele>220.33333333333334</ele><time>2026-04-30T09:19:46.001Z</time></trkpt><trkpt lat="40.60941989606296" lon="9.658262527511688"><ele>223.0</ele><time>2026-04-30T09:19:47.001Z</time></trkpt><trkpt lat="40.609341173537814" lon="9.658246132316103"><ele>225.66666666666669</ele><time>2026-04-30T09:19:49.001Z</time></trkpt><trkpt lat="40.60930337944151" lon="9.658115545934868"><ele>228.33333333333334</ele><time>2026-04-30T09:19:51.001Z</time></trkpt><trkpt lat="40.60928148100187" lon="9.658023773166805"><ele>231.0</ele><time>2026-04-30T09:19:52.001Z</time></trkpt><trkpt lat="40.60924088866426" lon="9.65794029093399"><ele>231.0</ele><time>2026-04-30T09:19:53.001Z</time></trkpt><trkpt lat="40.60919545779636" lon="9.657862484826621"><ele>231.00000000000003</ele><time>2026-04-30T09:19:54.001Z</time></trkpt><trkpt lat="40.60911258446781" lon="9.657794212822683"><ele>231.00000000000003</ele><time>2026-04-30T09:19:56.001Z</time></trkpt><trkpt lat="40.609011907037846" lon="9.65777613132194"><ele>231.0</ele><time>2026-04-30T09:19:58.001Z</time></trkpt><trkpt lat="40.60890403715112" lon="9.657818754173945"><ele>231.0</ele><time>2026-04-30T09:20:00.001Z</time></trkpt><trkpt lat="40.608838748683226" lon="9.657909125655646"><ele>231.0</ele><time>2026-04-30T09:20:01.001Z</time></trkpt><trkpt lat="40.608780910522164" lon="9.65801095385067"><ele>231.0</ele><time>2026-04-30T09:20:02.001Z</time></trkpt><trkpt lat="40.60872291632825" lon="9.658088007780972"><ele>231.0</ele><time>2026-04-30T09:20:03.001Z</time></trkpt><trkpt lat="40.60866304798282" lon="9.658150527106104"><ele>231.0</ele><time>2026-04-30T09:20:04.001Z</time></trkpt><trkpt lat="40.60854715171922" lon="9.658131467423827"><ele>231.0</ele><time>2026-04-30T09:20:06.001Z</time></trkpt><trkpt lat="40.60847805660737" lon="9.658115120614633"><ele>231.0</ele><time>2026-04-30T09:20:07.001Z</time></trkpt><trkpt lat="40.608389678539226" lon="9.658097470305128"><ele>232.66666666666666</ele><time>2026-04-30T09:20:08.001Z</time></trkpt><trkpt lat="40.60831377256486" lon="9.658093878930655"><ele>234.33333333333331</ele><time>2026-04-30T09:20:09.001Z</time></trkpt><trkpt lat="40.60825388264243" lon="9.658056179683443"><ele>236.0</ele><time>2026-04-30T09:20:10.001Z</time></trkpt><trkpt lat="40.608184189178495" lon="9.65798829012272"><ele>237.66666666666666</ele><time>2026-04-30T09:20:11.001Z</time></trkpt><trkpt lat="40.60812963888008" lon="9.657923944638286"><ele>239.33333333333331</ele><time>2026-04-30T09:20:12.001Z</time></trkpt><trkpt lat="40.60802531795887" lon="9.657878710589202"><ele>241.0</ele><time>2026-04-30T09:20:14.001Z</time></trkpt><trkpt lat="40.60789436015187" lon="9.657930876880288"><ele>241.49999999999997</ele><time>2026-04-30T09:20:16.001Z</time></trkpt><trkpt lat="40.607814800450186" lon="9.657969593405358"><ele>242.0</ele><time>2026-04-30T09:20:17.001Z</time></trkpt><trkpt lat="40.607737835860064" lon="9.658018657828675"><ele>242.5</ele><time>2026-04-30T09:20:18.001Z</time></trkpt><trkpt lat="40.6076651800105" lon="9.658060583716013"><ele>243.0</ele><time>2026-04-30T09:20:19.001Z</time></trkpt><trkpt lat="40.607585318563125" lon="9.658056604361068"><ele>243.49999999999997</ele><time>2026-04-30T09:20:20.001Z</time></trkpt><trkpt lat="40.60750748870421" lon="9.658037778675364"><ele>244.0</ele><time>2026-04-30T09:20:21.001Z</time></trkpt><trkpt lat="40.60743299748311" lon="9.65801971344965"><ele>243.99999999999997</ele><time>2026-04-30T09:20:22.001Z</time></trkpt><trkpt lat="40.60736522501316" lon="9.658024655945336"><ele>244.0</ele><time>2026-04-30T09:20:23.001Z</time></trkpt><trkpt lat="40.60730612489758" lon="9.658055043182493"><ele>243.99999999999997</ele><time>2026-04-30T09:20:24.001Z</time></trkpt><trkpt lat="40.60725156859912" lon="9.658099423249924"><ele>243.99999999999997</ele><time>2026-04-30T09:20:25.001Z</time></trkpt><trkpt lat="40.607204371576934" lon="9.658164463998647"><ele>244.0</ele><time>2026-04-30T09:20:26.001Z</time></trkpt><trkpt lat="40.60714894325805" lon="9.65823666087691"><ele>243.99999999999997</ele><time>2026-04-30T09:20:26.999Z</time></trkpt><trkpt lat="40.60708290562705" lon="9.65828351081667"><ele>243.99999999999997</ele><time>2026-04-30T09:20:27.999Z</time></trkpt><trkpt lat="40.60701690032057" lon="9.658327618106469"><ele>242.33333333333331</ele><time>2026-04-30T09:20:28.999Z</time></trkpt><trkpt lat="40.60695807089384" lon="9.658397024788444"><ele>240.66666666666666</ele><time>2026-04-30T09:20:29.999Z</time></trkpt><trkpt lat="40.606895078346994" lon="9.658432545267434"><ele>239.0</ele><time>2026-04-30T09:20:30.999Z</time></trkpt><trkpt lat="40.606822439652774" lon="9.658468073502474"><ele>237.33333333333331</ele><time>2026-04-30T09:20:31.999Z</time></trkpt><trkpt lat="40.606721508046554" lon="9.65854314284304"><ele>235.66666666666666</ele><time>2026-04-30T09:20:33.999Z</time></trkpt><trkpt lat="40.60666473773632" lon="9.658621779113306"><ele>234.0</ele><time>2026-04-30T09:20:34.999Z</time></trkpt><trkpt lat="40.60660247493188" lon="9.658696599657665"><ele>239.16666666666666</ele><time>2026-04-30T09:20:35.999Z</time></trkpt><trkpt lat="40.60652546584134" lon="9.658764088020172"><ele>244.33333333333331</ele><time>2026-04-30T09:20:36.999Z</time></trkpt><trkpt lat="40.606457939297414" lon="9.658804425132534"><ele>249.5</ele><time>2026-04-30T09:20:37.999Z</time></trkpt><trkpt lat="40.606390268488596" lon="9.65884505629279"><ele>254.66666666666666</ele><time>2026-04-30T09:20:38.999Z</time></trkpt><trkpt lat="40.60631236387458" lon="9.658896888083635"><ele>259.8333333333333</ele><time>2026-04-30T09:20:39.999Z</time></trkpt><trkpt lat="40.60622945468729" lon="9.658938049464263"><ele>265.0</ele><time>2026-04-30T09:20:40.999Z</time></trkpt><trkpt lat="40.60616961265144" lon="9.658992770158765"><ele>265.0</ele><time>2026-04-30T09:20:41.999Z</time></trkpt><trkpt lat="40.60609732132995" lon="9.659023545136074"><ele>265.0</ele><time>2026-04-30T09:20:42.999Z</time></trkpt><trkpt lat="40.60601936769221" lon="9.65902760870302"><ele>265.0</ele><time>2026-04-30T09:20:43.999Z</time></trkpt><trkpt lat="40.605955566027426" lon="9.65901166611875"><ele>265.0</ele><time>2026-04-30T09:20:44.999Z</time></trkpt><trkpt lat="40.60583848130473" lon="9.658953540418546"><ele>265.0</ele><time>2026-04-30T09:20:46.999Z</time></trkpt><trkpt lat="40.60580731268827" lon="9.658842942295468"><ele>265.0</ele><time>2026-04-30T09:20:48.999Z</time></trkpt><trkpt lat="40.60581297819832" lon="9.658758638228452"><ele>264.99999999999994</ele><time>2026-04-30T09:20:49.999Z</time></trkpt><trkpt lat="40.60582930000997" lon="9.658677912209871"><ele>265.0</ele><time>2026-04-30T09:20:50.999Z</time></trkpt><trkpt lat="40.60586424907162" lon="9.658603123166785"><ele>265.0</ele><time>2026-04-30T09:20:51.999Z</time></trkpt><trkpt lat="40.605904191753496" lon="9.658523369637097"><ele>265.0</ele><time>2026-04-30T09:20:52.999Z</time></trkpt><trkpt lat="40.60593569853075" lon="9.658443727877245"><ele>265.0</ele><time>2026-04-30T09:20:53.999Z</time></trkpt><trkpt lat="40.605932491024134" lon="9.658351616881879"><ele>264.99999999999994</ele><time>2026-04-30T09:20:54.999Z</time></trkpt><trkpt lat="40.605923960785596" lon="9.658248809381679"><ele>265.0</ele><time>2026-04-30T09:20:55.999Z</time></trkpt><trkpt lat="40.605914519008024" lon="9.658143831632154"><ele>262.3333333333333</ele><time>2026-04-30T09:20:56.999Z</time></trkpt><trkpt lat="40.60589377117586" lon="9.65804082356741"><ele>259.66666666666663</ele><time>2026-04-30T09:20:57.999Z</time></trkpt><trkpt lat="40.60586055095387" lon="9.657952350931268"><ele>257.0</ele><time>2026-04-30T09:20:59Z</time></trkpt><trkpt lat="40.60582070082979" lon="9.657854328360346"><ele>254.33333333333331</ele><time>2026-04-30T09:21:00Z</time></trkpt><trkpt lat="40.60579082667214" lon="9.657746405288503"><ele>251.66666666666666</ele><time>2026-04-30T09:21:01Z</time></trkpt><trkpt lat="40.60579105721605" lon="9.657629856426901"><ele>249.0</ele><time>2026-04-30T09:21:02Z</time></trkpt><trkpt lat="40.60579802108118" lon="9.657514206809122"><ele>248.28571428571428</ele><time>2026-04-30T09:21:03Z</time></trkpt><trkpt lat="40.60578233299569" lon="9.657419362272064"><ele>247.57142857142856</ele><time>2026-04-30T09:21:04Z</time></trkpt><trkpt lat="40.605751840580695" lon="9.657319886868656"><ele>246.85714285714283</ele><time>2026-04-30T09:21:05Z</time></trkpt><trkpt lat="40.60570854926361" lon="9.657231325912536"><ele>246.1428571428571</ele><time>2026-04-30T09:21:06Z</time></trkpt><trkpt lat="40.605676353174246" lon="9.657151582029483"><ele>245.42857142857142</ele><time>2026-04-30T09:21:07Z</time></trkpt><trkpt lat="40.60564214696546" lon="9.657077906570885"><ele>244.71428571428567</ele><time>2026-04-30T09:21:08Z</time></trkpt><trkpt lat="40.60558603984555" lon="9.657006546855454"><ele>243.99999999999997</ele><time>2026-04-30T09:21:09Z</time></trkpt><trkpt lat="40.60551640403455" lon="9.656967628456751"><ele>243.66666666666666</ele><time>2026-04-30T09:21:10Z</time></trkpt><trkpt lat="40.60544509596827" lon="9.656927524793852"><ele>243.33333333333331</ele><time>2026-04-30T09:21:11Z</time></trkpt><trkpt lat="40.60536547588425" lon="9.656895902050815"><ele>243.0</ele><time>2026-04-30T09:21:12Z</time></trkpt><trkpt lat="40.605273065576256" lon="9.656874068755988"><ele>242.66666666666669</ele><time>2026-04-30T09:21:13Z</time></trkpt><trkpt lat="40.6051917044204" lon="9.656853127158772"><ele>242.33333333333334</ele><time>2026-04-30T09:21:14Z</time></trkpt><trkpt lat="40.60512061129785" lon="9.656834639395804"><ele>242.0</ele><time>2026-04-30T09:21:15Z</time></trkpt><trkpt lat="40.605051415384864" lon="9.656850463822323"><ele>242.0</ele><time>2026-04-30T09:21:16Z</time></trkpt><trkpt lat="40.60497299959987" lon="9.656883179507235"><ele>242.0</ele><time>2026-04-30T09:21:17Z</time></trkpt><trkpt lat="40.6048907890399" lon="9.656922715870419"><ele>242.0</ele><time>2026-04-30T09:21:18Z</time></trkpt><trkpt lat="40.60481257087887" lon="9.656942358191511"><ele>242.0</ele><time>2026-04-30T09:21:19Z</time></trkpt><trkpt lat="40.60470200341651" lon="9.65687301564274"><ele>242.0</ele><time>2026-04-30T09:21:21Z</time></trkpt><trkpt lat="40.60462798393094" lon="9.656754402329362"><ele>242.00000000000003</ele><time>2026-04-30T09:21:23Z</time></trkpt><trkpt lat="40.60457894611401" lon="9.656695633842043"><ele>242.0</ele><time>2026-04-30T09:21:24Z</time></trkpt><trkpt lat="40.60451106856896" lon="9.65665556480755"><ele>242.0</ele><time>2026-04-30T09:21:25Z</time></trkpt><trkpt lat="40.60443996231251" lon="9.656604692585008"><ele>242.0</ele><time>2026-04-30T09:21:26Z</time></trkpt><trkpt lat="40.604365669005155" lon="9.656504619042572"><ele>242.00000000000003</ele><time>2026-04-30T09:21:28Z</time></trkpt><trkpt lat="40.60435745388099" lon="9.656356735969966"><ele>242.0</ele><time>2026-04-30T09:21:30Z</time></trkpt><trkpt lat="40.604431628630316" lon="9.656240620961274"><ele>242.0</ele><time>2026-04-30T09:21:32Z</time></trkpt><trkpt lat="40.6045291241125" lon="9.656175005857701"><ele>242.0</ele><time>2026-04-30T09:21:34Z</time></trkpt><trkpt lat="40.60460545308382" lon="9.656052622639647"><ele>242.0</ele><time>2026-04-30T09:21:36Z</time></trkpt><trkpt lat="40.60464463282854" lon="9.655947317676837"><ele>242.0</ele><time>2026-04-30T09:21:37Z</time></trkpt><trkpt lat="40.604676078409305" lon="9.655835516261366"><ele>242.0</ele><time>2026-04-30T09:21:38Z</time></trkpt><trkpt lat="40.604696347111705" lon="9.655730207228867"><ele>239.8</ele><time>2026-04-30T09:21:39Z</time></trkpt><trkpt lat="40.60469873674141" lon="9.655630022689271"><ele>237.6</ele><time>2026-04-30T09:21:40Z</time></trkpt><trkpt lat="40.60466961875901" lon="9.655492161496404"><ele>235.40000000000003</ele><time>2026-04-30T09:21:42Z</time></trkpt><trkpt lat="40.60459220042449" lon="9.655358398720098"><ele>233.20000000000002</ele><time>2026-04-30T09:21:44Z</time></trkpt><trkpt lat="40.604543283527065" lon="9.655294691840275"><ele>231.0</ele><time>2026-04-30T09:21:45Z</time></trkpt><trkpt lat="40.604480234133575" lon="9.655204644395926"><ele>231.0</ele><time>2026-04-30T09:21:46Z</time></trkpt><trkpt lat="40.604422507096224" lon="9.655125625449022"><ele>231.0</ele><time>2026-04-30T09:21:47Z</time></trkpt><trkpt lat="40.60436676549731" lon="9.65504501715953"><ele>231.0</ele><time>2026-04-30T09:21:48Z</time></trkpt><trkpt lat="40.60432679292396" lon="9.654970887618843"><ele>231.0</ele><time>2026-04-30T09:21:49Z</time></trkpt><trkpt lat="40.604295520528886" lon="9.654897002095861"><ele>231.0</ele><time>2026-04-30T09:21:50Z</time></trkpt><trkpt lat="40.604324959182165" lon="9.654822860725337"><ele>231.0</ele><time>2026-04-30T09:21:52Z</time></trkpt><trkpt lat="40.60438444132467" lon="9.65477479195618"><ele>231.0</ele><time>2026-04-30T09:21:53Z</time></trkpt><trkpt lat="40.60449734623925" lon="9.65470388727502"><ele>231.0</ele><time>2026-04-30T09:21:55Z</time></trkpt><trkpt lat="40.604560222083315" lon="9.654682965435473"><ele>231.0</ele><time>2026-04-30T09:21:56Z</time></trkpt><trkpt lat="40.604627086985005" lon="9.654639102398052"><ele>231.0</ele><time>2026-04-30T09:21:57Z</time></trkpt><trkpt lat="40.60468706833183" lon="9.654595527103485"><ele>231.0</ele><time>2026-04-30T09:21:58Z</time></trkpt><trkpt lat="40.60474465123276" lon="9.654531763892955"><ele>231.0</ele><time>2026-04-30T09:21:59Z</time></trkpt><trkpt lat="40.60480742935899" lon="9.654452297993478"><ele>231.0</ele><time>2026-04-30T09:22:00Z</time></trkpt><trkpt lat="40.60489088029551" lon="9.654379250124853"><ele>236.20000000000002</ele><time>2026-04-30T09:22:01Z</time></trkpt><trkpt lat="40.604977282187846" lon="9.65432274641156"><ele>241.40000000000003</ele><time>2026-04-30T09:22:02Z</time></trkpt><trkpt lat="40.60506469708902" lon="9.654262433010972"><ele>246.6</ele><time>2026-04-30T09:22:03Z</time></trkpt><trkpt lat="40.60514422468469" lon="9.65421175530524"><ele>251.8</ele><time>2026-04-30T09:22:04Z</time></trkpt><trkpt lat="40.60523650514234" lon="9.654192461413468"><ele>257.0</ele><time>2026-04-30T09:22:05Z</time></trkpt><trkpt lat="40.60532701562841" lon="9.654168099193605"><ele>251.8</ele><time>2026-04-30T09:22:06Z</time></trkpt><trkpt lat="40.60541423996741" lon="9.654154208677284"><ele>246.6</ele><time>2026-04-30T09:22:07.001Z</time></trkpt><trkpt lat="40.605528620050386" lon="9.654113420867231"><ele>241.40000000000003</ele><time>2026-04-30T09:22:09.001Z</time></trkpt><trkpt lat="40.605563548816264" lon="9.653987433673773"><ele>236.20000000000002</ele><time>2026-04-30T09:22:11.001Z</time></trkpt><trkpt lat="40.60561180301757" lon="9.653887164108895"><ele>231.0</ele><time>2026-04-30T09:22:12.001Z</time></trkpt><trkpt lat="40.60564676118969" lon="9.653797007911024"><ele>231.0</ele><time>2026-04-30T09:22:13.001Z</time></trkpt><trkpt lat="40.60566003150235" lon="9.653690080949621"><ele>231.0</ele><time>2026-04-30T09:22:14.001Z</time></trkpt><trkpt lat="40.60565890736866" lon="9.653581910456175"><ele>231.0</ele><time>2026-04-30T09:22:15.001Z</time></trkpt><trkpt lat="40.60565864157001" lon="9.653496265805945"><ele>231.0</ele><time>2026-04-30T09:22:16.001Z</time></trkpt><trkpt lat="40.605660081779504" lon="9.65337246098453"><ele>231.0</ele><time>2026-04-30T09:22:17.001Z</time></trkpt><trkpt lat="40.60566400834682" lon="9.653253586148706"><ele>231.0</ele><time>2026-04-30T09:22:18.001Z</time></trkpt><trkpt lat="40.60566832617103" lon="9.653146904415957"><ele>232.28571428571428</ele><time>2026-04-30T09:22:19.001Z</time></trkpt><trkpt lat="40.605692783488635" lon="9.653069796299032"><ele>233.57142857142856</ele><time>2026-04-30T09:22:20.001Z</time></trkpt><trkpt lat="40.60572939387276" lon="9.65300207243408"><ele>234.85714285714286</ele><time>2026-04-30T09:22:21.001Z</time></trkpt><trkpt lat="40.60577979696204" lon="9.652951548923712"><ele>236.14285714285714</ele><time>2026-04-30T09:22:22.001Z</time></trkpt><trkpt lat="40.6058491798931" lon="9.652920198552371"><ele>237.42857142857142</ele><time>2026-04-30T09:22:24.001Z</time></trkpt><trkpt lat="40.60588300029412" lon="9.65284744789653"><ele>238.71428571428572</ele><time>2026-04-30T09:22:27.001Z</time></trkpt><trkpt lat="40.605901489163365" lon="9.652743883825517"><ele>240.0</ele><time>2026-04-30T09:22:29.001Z</time></trkpt><trkpt lat="40.6059088157247" lon="9.65258917145821"><ele>241.4</ele><time>2026-04-30T09:22:31.001Z</time></trkpt><trkpt lat="40.60591725922409" lon="9.652441849455261"><ele>242.8</ele><time>2026-04-30T09:22:32.999Z</time></trkpt><trkpt lat="40.60591448314237" lon="9.652304735603414"><ele>244.2</ele><time>2026-04-30T09:22:34.999Z</time></trkpt><trkpt lat="40.60591507941869" lon="9.652215707567391"><ele>245.6</ele><time>2026-04-30T09:22:35.998Z</time></trkpt><trkpt lat="40.60591153465032" lon="9.652071929287207"><ele>247.0</ele><time>2026-04-30T09:22:37.999Z</time></trkpt><trkpt lat="40.60589655518114" lon="9.651924929031862"><ele>248.39999999999998</ele><time>2026-04-30T09:22:39.998Z</time></trkpt><trkpt lat="40.605904511104946" lon="9.651805859848066"><ele>249.79999999999998</ele><time>2026-04-30T09:22:41.998Z</time></trkpt><trkpt lat="40.605879603408674" lon="9.651670875589787"><ele>251.2</ele><time>2026-04-30T09:22:43.999Z</time></trkpt><trkpt lat="40.6058848030561" lon="9.6515283538654"><ele>252.6</ele><time>2026-04-30T09:22:45.998Z</time></trkpt><trkpt lat="40.605865412503896" lon="9.651411870065195"><ele>254.0</ele><time>2026-04-30T09:22:47.998Z</time></trkpt><trkpt lat="40.60579650869513" lon="9.651347992474378"><ele>254.0</ele><time>2026-04-30T09:22:49.998Z</time></trkpt><trkpt lat="40.605696495913925" lon="9.651334095985527"><ele>253.99999999999997</ele><time>2026-04-30T09:22:51.998Z</time></trkpt><trkpt lat="40.60559398240445" lon="9.651358536629408"><ele>253.99999999999997</ele><time>2026-04-30T09:22:53.998Z</time></trkpt><trkpt lat="40.605532127750884" lon="9.651382952296316"><ele>254.0</ele><time>2026-04-30T09:22:54.998Z</time></trkpt><trkpt lat="40.60540930829069" lon="9.651367842432105"><ele>254.0</ele><time>2026-04-30T09:22:56.998Z</time></trkpt><trkpt lat="40.60529845682458" lon="9.651307822117811"><ele>255.00000000000003</ele><time>2026-04-30T09:22:58.999Z</time></trkpt><trkpt lat="40.6052280075073" lon="9.651270104949845"><ele>256.0</ele><time>2026-04-30T09:22:59.999Z</time></trkpt><trkpt lat="40.60516161975289" lon="9.651218379596187"><ele>257.0</ele><time>2026-04-30T09:23:00.999Z</time></trkpt><trkpt lat="40.605120677531495" lon="9.651126101460457"><ele>258.0</ele><time>2026-04-30T09:23:01.999Z</time></trkpt><trkpt lat="40.6050633859211" lon="9.651064053511385"><ele>259.0</ele><time>2026-04-30T09:23:02.999Z</time></trkpt><trkpt lat="40.605001006547546" lon="9.65101049588141"><ele>260.0</ele><time>2026-04-30T09:23:03.999Z</time></trkpt><trkpt lat="40.60493397108604" lon="9.65093724790594"><ele>260.0</ele><time>2026-04-30T09:23:04.999Z</time></trkpt><trkpt lat="40.604888609326245" lon="9.650854114615022"><ele>260.0</ele><time>2026-04-30T09:23:05.999Z</time></trkpt><trkpt lat="40.60484739593192" lon="9.650744973574694"><ele>260.0</ele><time>2026-04-30T09:23:06.999Z</time></trkpt><trkpt lat="40.60480228529794" lon="9.650649577372706"><ele>260.0</ele><time>2026-04-30T09:23:07.999Z</time></trkpt><trkpt lat="40.60476343733459" lon="9.650560759117504"><ele>260.0</ele><time>2026-04-30T09:23:08.999Z</time></trkpt><trkpt lat="40.60473655865552" lon="9.650444366213188"><ele>260.0</ele><time>2026-04-30T09:23:09.999Z</time></trkpt><trkpt lat="40.60471780915825" lon="9.650335702830986"><ele>260.83333333333337</ele><time>2026-04-30T09:23:10.999Z</time></trkpt><trkpt lat="40.604687969222354" lon="9.650237435368394"><ele>261.6666666666667</ele><time>2026-04-30T09:23:11.999Z</time></trkpt><trkpt lat="40.60465463292346" lon="9.650133566438884"><ele>262.5</ele><time>2026-04-30T09:23:12.999Z</time></trkpt><trkpt lat="40.60462029732075" lon="9.650023081951105"><ele>263.3333333333333</ele><time>2026-04-30T09:23:13.999Z</time></trkpt><trkpt lat="40.60457607320784" lon="9.649916884221"><ele>264.16666666666663</ele><time>2026-04-30T09:23:14.999Z</time></trkpt><trkpt lat="40.6045225048408" lon="9.64985147379052"><ele>265.0</ele><time>2026-04-30T09:23:15.999Z</time></trkpt><trkpt lat="40.60442508269954" lon="9.64975014131193"><ele>265.0</ele><time>2026-04-30T09:23:17.999Z</time></trkpt><trkpt lat="40.604358731274566" lon="9.649710982370252"><ele>265.0</ele><time>2026-04-30T09:23:18.999Z</time></trkpt><trkpt lat="40.60431165813301" lon="9.649649831042096"><ele>265.0</ele><time>2026-04-30T09:23:19.999Z</time></trkpt><trkpt lat="40.60422239985607" lon="9.649558721405484"><ele>265.0</ele><time>2026-04-30T09:23:21.999Z</time></trkpt><trkpt lat="40.6042144012182" lon="9.649438341243828"><ele>265.0</ele><time>2026-04-30T09:23:23.999Z</time></trkpt><trkpt lat="40.604252917552735" lon="9.649356782411695"><ele>265.0</ele><time>2026-04-30T09:23:24.999Z</time></trkpt><trkpt lat="40.60429894600635" lon="9.649288514535614"><ele>264.4</ele><time>2026-04-30T09:23:25.999Z</time></trkpt><trkpt lat="40.60436001848366" lon="9.64922349216895"><ele>263.8</ele><time>2026-04-30T09:23:26.999Z</time></trkpt><trkpt lat="40.60444488431978" lon="9.649172632141246"><ele>263.2</ele><time>2026-04-30T09:23:28.999Z</time></trkpt><trkpt lat="40.60453039402258" lon="9.649228006455841"><ele>262.6</ele><time>2026-04-30T09:23:30.999Z</time></trkpt><trkpt lat="40.604602924997515" lon="9.649217421017042"><ele>262.0</ele><time>2026-04-30T09:23:31.999Z</time></trkpt><trkpt lat="40.60471630259986" lon="9.649226426233335"><ele>261.6</ele><time>2026-04-30T09:23:32.999Z</time></trkpt><trkpt lat="40.604810762391075" lon="9.64927198825354"><ele>261.2</ele><time>2026-04-30T09:23:33.999Z</time></trkpt><trkpt lat="40.6049092800629" lon="9.64930393845055"><ele>260.8</ele><time>2026-04-30T09:23:34.999Z</time></trkpt><trkpt lat="40.60497757606062" lon="9.64933773814138"><ele>260.4</ele><time>2026-04-30T09:23:35.999Z</time></trkpt><trkpt lat="40.60508369955835" lon="9.649408240416617"><ele>260.0</ele><time>2026-04-30T09:23:37.999Z</time></trkpt><trkpt lat="40.605137905464076" lon="9.64948577922524"><ele>257.8</ele><time>2026-04-30T09:23:38.999Z</time></trkpt><trkpt lat="40.60519638562634" lon="9.649566646075852"><ele>255.6</ele><time>2026-04-30T09:23:39.999Z</time></trkpt><trkpt lat="40.6052584842984" lon="9.649652821566093"><ele>253.39999999999998</ele><time>2026-04-30T09:23:40.999Z</time></trkpt><trkpt lat="40.60535956574791" lon="9.649697304840094"><ele>251.2</ele><time>2026-04-30T09:23:42.999Z</time></trkpt><trkpt lat="40.605470783214464" lon="9.649732832466432"><ele>249.0</ele><time>2026-04-30T09:23:44.999Z</time></trkpt><trkpt lat="40.60554594853988" lon="9.649682045878516"><ele>248.5</ele><time>2026-04-30T09:23:46.999Z</time></trkpt><trkpt lat="40.605633674048214" lon="9.649571369351552"><ele>248.0</ele><time>2026-04-30T09:23:48.999Z</time></trkpt><trkpt lat="40.60568435040525" lon="9.6494854505582"><ele>247.5</ele><time>2026-04-30T09:23:50.999Z</time></trkpt><trkpt lat="40.605692950652056" lon="9.649322224783006"><ele>247.0</ele><time>2026-04-30T09:23:52.999Z</time></trkpt><trkpt lat="40.60570840817331" lon="9.64913683641838"><ele>246.99999999999997</ele><time>2026-04-30T09:23:54.999Z</time></trkpt><trkpt lat="40.60571539661087" lon="9.649029736277381"><ele>247.0</ele><time>2026-04-30T09:23:55.999Z</time></trkpt><trkpt lat="40.60572273669652" lon="9.648920329802314"><ele>247.0</ele><time>2026-04-30T09:23:56.999Z</time></trkpt><trkpt lat="40.60572447825632" lon="9.648805939318283"><ele>247.0</ele><time>2026-04-30T09:23:57.999Z</time></trkpt><trkpt lat="40.60571572042258" lon="9.648694778549908"><ele>246.99999999999997</ele><time>2026-04-30T09:23:58.999Z</time></trkpt><trkpt lat="40.60570083981985" lon="9.648578765064485"><ele>247.0</ele><time>2026-04-30T09:23:59.999Z</time></trkpt><trkpt lat="40.60570238798974" lon="9.648464077002465"><ele>247.49999999999997</ele><time>2026-04-30T09:24:00.999Z</time></trkpt><trkpt lat="40.60572291076888" lon="9.648379002496956"><ele>248.0</ele><time>2026-04-30T09:24:01.999Z</time></trkpt><trkpt lat="40.60572185627929" lon="9.648230333277105"><ele>248.5</ele><time>2026-04-30T09:24:03.999Z</time></trkpt><trkpt lat="40.60572045070034" lon="9.648147325471903"><ele>249.0</ele><time>2026-04-30T09:24:04.999Z</time></trkpt><trkpt lat="40.60572345704496" lon="9.648003816170425"><ele>249.49999999999997</ele><time>2026-04-30T09:24:07Z</time></trkpt><trkpt lat="40.605712754963164" lon="9.647912642618467"><ele>250.0</ele><time>2026-04-30T09:24:08Z</time></trkpt><trkpt lat="40.60569182841557" lon="9.647817400039692"><ele>250.6</ele><time>2026-04-30T09:24:09Z</time></trkpt><trkpt lat="40.60568623828816" lon="9.64769392521956"><ele>251.2</ele><time>2026-04-30T09:24:10Z</time></trkpt><trkpt lat="40.60567077715265" lon="9.647586166481755"><ele>251.8</ele><time>2026-04-30T09:24:11Z</time></trkpt><trkpt lat="40.60566711203919" lon="9.647501209449016"><ele>252.4</ele><time>2026-04-30T09:24:12Z</time></trkpt><trkpt lat="40.605615872849924" lon="9.647369770252627"><ele>253.0</ele><time>2026-04-30T09:24:14Z</time></trkpt><trkpt lat="40.60564599888207" lon="9.64724331675379"><ele>252.99999999999997</ele><time>2026-04-30T09:24:16Z</time></trkpt><trkpt lat="40.60572939938532" lon="9.647191987960523"><ele>253.0</ele><time>2026-04-30T09:24:18Z</time></trkpt><trkpt lat="40.60579525484447" lon="9.647199107060295"><ele>253.0</ele><time>2026-04-30T09:24:19Z</time></trkpt><trkpt lat="40.605869001149735" lon="9.647212980529748"><ele>253.0</ele><time>2026-04-30T09:24:20Z</time></trkpt><trkpt lat="40.6059435919734" lon="9.647240484001662"><ele>252.99999999999997</ele><time>2026-04-30T09:24:21Z</time></trkpt><trkpt lat="40.60601407417305" lon="9.647261820398892"><ele>253.0</ele><time>2026-04-30T09:24:22Z</time></trkpt><trkpt lat="40.6060838066451" lon="9.647297073198784"><ele>247.4</ele><time>2026-04-30T09:24:23Z</time></trkpt><trkpt lat="40.60617679507911" lon="9.64730054305821"><ele>241.8</ele><time>2026-04-30T09:24:25Z</time></trkpt><trkpt lat="40.60628075005268" lon="9.647246308040197"><ele>236.2</ele><time>2026-04-30T09:24:27Z</time></trkpt><trkpt lat="40.60633878309434" lon="9.647198067480549"><ele>230.6</ele><time>2026-04-30T09:24:28Z</time></trkpt><trkpt lat="40.60640341909202" lon="9.647138739269161"><ele>225.0</ele><time>2026-04-30T09:24:29Z</time></trkpt><trkpt lat="40.60649852019967" lon="9.647048177893579"><ele>225.0</ele><time>2026-04-30T09:24:31Z</time></trkpt><trkpt lat="40.60655112299189" lon="9.646997935456316"><ele>225.0</ele><time>2026-04-30T09:24:32Z</time></trkpt><trkpt lat="40.60664069051007" lon="9.646902376720943"><ele>225.0</ele><time>2026-04-30T09:24:34Z</time></trkpt><trkpt lat="40.6067169217628" lon="9.64681175554456"><ele>225.0</ele><time>2026-04-30T09:24:36Z</time></trkpt><trkpt lat="40.606783984905945" lon="9.64679812045707"><ele>225.0</ele><time>2026-04-30T09:24:37Z</time></trkpt><trkpt lat="40.606893798742874" lon="9.64677368041523"><ele>224.8</ele><time>2026-04-30T09:24:38.998Z</time></trkpt><trkpt lat="40.607018495737485" lon="9.646725910897443"><ele>224.6</ele><time>2026-04-30T09:24:40.999Z</time></trkpt><trkpt lat="40.6071252016537" lon="9.646676046078758"><ele>224.39999999999998</ele><time>2026-04-30T09:24:42.998Z</time></trkpt><trkpt lat="40.60721510976938" lon="9.646640334719256"><ele>224.2</ele><time>2026-04-30T09:24:44.998Z</time></trkpt><trkpt lat="40.607303381333665" lon="9.64655592281436"><ele>224.0</ele><time>2026-04-30T09:24:46.998Z</time></trkpt><trkpt lat="40.60735466223848" lon="9.646496624044563"><ele>224.0</ele><time>2026-04-30T09:24:47.999Z</time></trkpt><trkpt lat="40.607396575411954" lon="9.646426246336599"><ele>223.99999999999997</ele><time>2026-04-30T09:24:48.998Z</time></trkpt><trkpt lat="40.60743149424492" lon="9.646298428096193"><ele>223.99999999999997</ele><time>2026-04-30T09:24:50.999Z</time></trkpt><trkpt lat="40.60742600247914" lon="9.646211124333252"><ele>224.0</ele><time>2026-04-30T09:24:51.999Z</time></trkpt><trkpt lat="40.60738727058254" lon="9.646066070819698"><ele>224.0</ele><time>2026-04-30T09:24:53.999Z</time></trkpt><trkpt lat="40.607357613462725" lon="9.645913803400015"><ele>223.83333333333334</ele><time>2026-04-30T09:24:55.999Z</time></trkpt><trkpt lat="40.60733125076896" lon="9.645817356869326"><ele>223.66666666666669</ele><time>2026-04-30T09:24:56.999Z</time></trkpt><trkpt lat="40.60734514514794" lon="9.645725541278695"><ele>223.5</ele><time>2026-04-30T09:24:57.999Z</time></trkpt><trkpt lat="40.60736454014928" lon="9.645582270436181"><ele>223.33333333333331</ele><time>2026-04-30T09:24:59.999Z</time></trkpt><trkpt lat="40.60735974377559" lon="9.645433200901396"><ele>223.16666666666666</ele><time>2026-04-30T09:25:01.999Z</time></trkpt><trkpt lat="40.607349025239124" lon="9.645340084714183"><ele>223.0</ele><time>2026-04-30T09:25:02.999Z</time></trkpt><trkpt lat="40.60733874082154" lon="9.645199400300276"><ele>219.4</ele><time>2026-04-30T09:25:04.999Z</time></trkpt><trkpt lat="40.6073407851219" lon="9.645080575937715"><ele>215.8</ele><time>2026-04-30T09:25:06.999Z</time></trkpt><trkpt lat="40.60730430226694" lon="9.64493735118688"><ele>212.2</ele><time>2026-04-30T09:25:08.999Z</time></trkpt><trkpt lat="40.60725404152827" lon="9.644816785321728"><ele>208.6</ele><time>2026-04-30T09:25:10.999Z</time></trkpt><trkpt lat="40.607224109736414" lon="9.644739261595902"><ele>205.0</ele><time>2026-04-30T09:25:11.999Z</time></trkpt><trkpt lat="40.60718657321212" lon="9.644654016553412"><ele>205.0</ele><time>2026-04-30T09:25:12.999Z</time></trkpt><trkpt lat="40.60715999344462" lon="9.644529909260424"><ele>205.0</ele><time>2026-04-30T09:25:14.999Z</time></trkpt><trkpt lat="40.607154129323355" lon="9.644363027054697"><ele>205.0</ele><time>2026-04-30T09:25:16.999Z</time></trkpt><trkpt lat="40.607145018985925" lon="9.64427570190888"><ele>205.0</ele><time>2026-04-30T09:25:17.999Z</time></trkpt><trkpt lat="40.60709400520908" lon="9.644164935386714"><ele>205.0</ele><time>2026-04-30T09:25:19.999Z</time></trkpt><trkpt lat="40.60705303649343" lon="9.64408805465958"><ele>202.83333333333331</ele><time>2026-04-30T09:25:20.999Z</time></trkpt><trkpt lat="40.60703329528606" lon="9.643994141472525"><ele>200.66666666666666</ele><time>2026-04-30T09:25:21.999Z</time></trkpt><trkpt lat="40.607010255342615" lon="9.643905776151122"><ele>198.5</ele><time>2026-04-30T09:25:22.999Z</time></trkpt><trkpt lat="40.60695894119066" lon="9.6438036742323"><ele>196.33333333333331</ele><time>2026-04-30T09:25:23.999Z</time></trkpt><trkpt lat="40.60691276306982" lon="9.64371310659814"><ele>194.16666666666666</ele><time>2026-04-30T09:25:24.999Z</time></trkpt><trkpt lat="40.606894979071285" lon="9.64361959783646"><ele>192.0</ele><time>2026-04-30T09:25:25.999Z</time></trkpt><trkpt lat="40.60693549335681" lon="9.64346687528641"><ele>193.16666666666666</ele><time>2026-04-30T09:25:27.999Z</time></trkpt><trkpt lat="40.606983438104805" lon="9.643394322910659"><ele>194.33333333333331</ele><time>2026-04-30T09:25:28.999Z</time></trkpt><trkpt lat="40.60703216671578" lon="9.643326263275608"><ele>195.5</ele><time>2026-04-30T09:25:29.999Z</time></trkpt><trkpt lat="40.60711763470888" lon="9.643230298644827"><ele>196.66666666666666</ele><time>2026-04-30T09:25:31.999Z</time></trkpt><trkpt lat="40.607144832689606" lon="9.643155069081653"><ele>197.83333333333331</ele><time>2026-04-30T09:25:32.999Z</time></trkpt><trkpt lat="40.60716098880006" lon="9.643065427936698"><ele>199.0</ele><time>2026-04-30T09:25:33.999Z</time></trkpt><trkpt lat="40.60715989222603" lon="9.642916800376751"><ele>201.6</ele><time>2026-04-30T09:25:35.999Z</time></trkpt><trkpt lat="40.60715574928164" lon="9.642793342866064"><ele>204.2</ele><time>2026-04-30T09:25:37.999Z</time></trkpt><trkpt lat="40.607147162936016" lon="9.642680615026753"><ele>206.79999999999998</ele><time>2026-04-30T09:25:39.999Z</time></trkpt><trkpt lat="40.60709306666492" lon="9.642566962366379"><ele>209.39999999999998</ele><time>2026-04-30T09:25:41.999Z</time></trkpt><trkpt lat="40.607013219983415" lon="9.642478641575156"><ele>212.0</ele><time>2026-04-30T09:25:43.999Z</time></trkpt><trkpt lat="40.60695164749386" lon="9.642367090351966"><ele>214.8</ele><time>2026-04-30T09:25:46Z</time></trkpt><trkpt lat="40.60685920499999" lon="9.642315622858403"><ele>217.6</ele><time>2026-04-30T09:25:48Z</time></trkpt><trkpt lat="40.60677129098808" lon="9.642254717165132"><ele>220.40000000000003</ele><time>2026-04-30T09:25:50Z</time></trkpt><trkpt lat="40.60665788494169" lon="9.64222786259052"><ele>223.20000000000002</ele><time>2026-04-30T09:25:52Z</time></trkpt><trkpt lat="40.606541596490636" lon="9.64218613495226"><ele>226.0</ele><time>2026-04-30T09:25:54Z</time></trkpt><trkpt lat="40.60647585316596" lon="9.64215024836704"><ele>225.99999999999997</ele><time>2026-04-30T09:25:55Z</time></trkpt><trkpt lat="40.60641464406725" lon="9.642084834129259"><ele>226.0</ele><time>2026-04-30T09:25:56Z</time></trkpt><trkpt lat="40.606360046205786" lon="9.64203665940595"><ele>226.0</ele><time>2026-04-30T09:25:57Z</time></trkpt><trkpt lat="40.6063085118828" lon="9.641986188597977"><ele>226.0</ele><time>2026-04-30T09:25:58Z</time></trkpt><trkpt lat="40.60621251075992" lon="9.641896563489494"><ele>225.99999999999997</ele><time>2026-04-30T09:26:00Z</time></trkpt><trkpt lat="40.606158670628396" lon="9.641837166532287"><ele>226.0</ele><time>2026-04-30T09:26:01Z</time></trkpt><trkpt lat="40.60611601532361" lon="9.641772144267758"><ele>229.16666666666666</ele><time>2026-04-30T09:26:02Z</time></trkpt><trkpt lat="40.60608319456698" lon="9.641697951438548"><ele>232.33333333333331</ele><time>2026-04-30T09:26:03Z</time></trkpt><trkpt lat="40.60602729285294" lon="9.641625939937596"><ele>235.5</ele><time>2026-04-30T09:26:05Z</time></trkpt><trkpt lat="40.605935128046404" lon="9.641594394836359"><ele>238.66666666666669</ele><time>2026-04-30T09:26:07Z</time></trkpt><trkpt lat="40.6058691908745" lon="9.641601700141099"><ele>241.83333333333334</ele><time>2026-04-30T09:26:08Z</time></trkpt><trkpt lat="40.6057864597843" lon="9.641563956913775"><ele>245.0</ele><time>2026-04-30T09:26:10Z</time></trkpt><trkpt lat="40.605780142586426" lon="9.641454182300802"><ele>245.0</ele><time>2026-04-30T09:26:12Z</time></trkpt><trkpt lat="40.60586415327299" lon="9.641342328811906"><ele>245.0</ele><time>2026-04-30T09:26:14Z</time></trkpt><trkpt lat="40.605966146553804" lon="9.641244720808066"><ele>245.0</ele><time>2026-04-30T09:26:16Z</time></trkpt><trkpt lat="40.60603113377581" lon="9.641193945188654"><ele>245.0</ele><time>2026-04-30T09:26:17Z</time></trkpt><trkpt lat="40.6060883513283" lon="9.641129934568548"><ele>245.0</ele><time>2026-04-30T09:26:18Z</time></trkpt><trkpt lat="40.606154911279475" lon="9.641087584092894"><ele>243.0</ele><time>2026-04-30T09:26:19Z</time></trkpt><trkpt lat="40.60623028776236" lon="9.641083527034144"><ele>241.0</ele><time>2026-04-30T09:26:20Z</time></trkpt><trkpt lat="40.606339125385745" lon="9.641119888188605"><ele>239.0</ele><time>2026-04-30T09:26:22Z</time></trkpt><trkpt lat="40.60639258269828" lon="9.641181322327803"><ele>237.0</ele><time>2026-04-30T09:26:23Z</time></trkpt><trkpt lat="40.60646963267503" lon="9.641262010910696"><ele>235.0</ele><time>2026-04-30T09:26:25Z</time></trkpt><trkpt lat="40.60656159694238" lon="9.64127718111316"><ele>234.99999999999997</ele><time>2026-04-30T09:26:27Z</time></trkpt><trkpt lat="40.606637872319574" lon="9.641276059325198"><ele>235.0</ele><time>2026-04-30T09:26:28Z</time></trkpt><trkpt lat="40.60674908168628" lon="9.64121705070557"><ele>235.0</ele><time>2026-04-30T09:26:30Z</time></trkpt><trkpt lat="40.60679879565633" lon="9.64111793525365"><ele>235.0</ele><time>2026-04-30T09:26:32Z</time></trkpt><trkpt lat="40.606779088611184" lon="9.641035322720347"><ele>234.99999999999997</ele><time>2026-04-30T09:26:34Z</time></trkpt><trkpt lat="40.60670445520442" lon="9.640997541159503"><ele>235.0</ele><time>2026-04-30T09:26:37Z</time></trkpt><trkpt lat="40.606629811373416" lon="9.640951935677846"><ele>235.0</ele><time>2026-04-30T09:26:39Z</time></trkpt><trkpt lat="40.60655921041945" lon="9.640848379018006"><ele>235.0</ele><time>2026-04-30T09:26:41Z</time></trkpt><trkpt lat="40.606485017181896" lon="9.640725083343815"><ele>235.0</ele><time>2026-04-30T09:26:43Z</time></trkpt><trkpt lat="40.60645476497994" lon="9.640624334130093"><ele>235.0</ele><time>2026-04-30T09:26:44.998Z</time></trkpt><trkpt lat="40.60641322062607" lon="9.640529613614436"><ele>235.0</ele><time>2026-04-30T09:26:46.998Z</time></trkpt><trkpt lat="40.606386989854926" lon="9.640403002785693"><ele>235.4</ele><time>2026-04-30T09:26:48.998Z</time></trkpt><trkpt lat="40.60635381218177" lon="9.640280513319105"><ele>235.8</ele><time>2026-04-30T09:26:50.998Z</time></trkpt><trkpt lat="40.60629324418628" lon="9.640177723223589"><ele>236.2</ele><time>2026-04-30T09:26:52.998Z</time></trkpt><trkpt lat="40.60620071654575" lon="9.64012627391351"><ele>236.6</ele><time>2026-04-30T09:26:54.998Z</time></trkpt><trkpt lat="40.60609807238795" lon="9.640075506613378"><ele>237.0</ele><time>2026-04-30T09:26:56.998Z</time></trkpt><trkpt lat="40.6059784116818" lon="9.639974545305646"><ele>242.16666666666666</ele><time>2026-04-30T09:26:58.999Z</time></trkpt><trkpt lat="40.60593216609311" lon="9.639904108345842"><ele>247.33333333333331</ele><time>2026-04-30T09:26:59.999Z</time></trkpt><trkpt lat="40.605882190671295" lon="9.63983779306291"><ele>252.5</ele><time>2026-04-30T09:27:00.999Z</time></trkpt><trkpt lat="40.60577302823742" lon="9.639765952279129"><ele>257.66666666666663</ele><time>2026-04-30T09:27:02.999Z</time></trkpt><trkpt lat="40.60569594092325" lon="9.63972684854396"><ele>262.8333333333333</ele><time>2026-04-30T09:27:03.999Z</time></trkpt><trkpt lat="40.60562985473323" lon="9.639671337481921"><ele>268.0</ele><time>2026-04-30T09:27:05.999Z</time></trkpt><trkpt lat="40.6056039308649" lon="9.63954593516783"><ele>269.16666666666663</ele><time>2026-04-30T09:27:07.999Z</time></trkpt><trkpt lat="40.60564737628514" lon="9.639412350841262"><ele>270.3333333333333</ele><time>2026-04-30T09:27:09.999Z</time></trkpt><trkpt lat="40.60568094223395" lon="9.639321291968708"><ele>271.5</ele><time>2026-04-30T09:27:10.999Z</time></trkpt><trkpt lat="40.6057237840174" lon="9.63924322206424"><ele>272.6666666666667</ele><time>2026-04-30T09:27:11.999Z</time></trkpt><trkpt lat="40.60577915812878" lon="9.639186079602956"><ele>273.83333333333337</ele><time>2026-04-30T09:27:12.999Z</time></trkpt><trkpt lat="40.605843565286335" lon="9.639135851575437"><ele>275.0</ele><time>2026-04-30T09:27:13.999Z</time></trkpt><trkpt lat="40.60590033765981" lon="9.639094369131614"><ele>275.0</ele><time>2026-04-30T09:27:14.999Z</time></trkpt><trkpt lat="40.605965489581806" lon="9.638991727145974"><ele>275.0</ele><time>2026-04-30T09:27:16.999Z</time></trkpt><trkpt lat="40.606015484160324" lon="9.63892570743198"><ele>275.0</ele><time>2026-04-30T09:27:17.999Z</time></trkpt><trkpt lat="40.6061115899602" lon="9.638793925027514"><ele>275.0</ele><time>2026-04-30T09:27:19.999Z</time></trkpt><trkpt lat="40.6061773945621" lon="9.63871577126391"><ele>275.0</ele><time>2026-04-30T09:27:20.999Z</time></trkpt><trkpt lat="40.60623113512808" lon="9.638637305019357"><ele>274.83333333333337</ele><time>2026-04-30T09:27:21.999Z</time></trkpt><trkpt lat="40.606278456018075" lon="9.638557287687243"><ele>274.6666666666667</ele><time>2026-04-30T09:27:22.999Z</time></trkpt><trkpt lat="40.606326983631334" lon="9.638465549663968"><ele>274.5</ele><time>2026-04-30T09:27:23.999Z</time></trkpt><trkpt lat="40.60636625058756" lon="9.638382548212896"><ele>274.3333333333333</ele><time>2026-04-30T09:27:24.999Z</time></trkpt><trkpt lat="40.60641633037056" lon="9.638294909007705"><ele>274.16666666666663</ele><time>2026-04-30T09:27:25.999Z</time></trkpt><trkpt lat="40.606515466806385" lon="9.638233055968033"><ele>274.0</ele><time>2026-04-30T09:27:27.999Z</time></trkpt><trkpt lat="40.60657929305523" lon="9.638229226567137"><ele>274.0</ele><time>2026-04-30T09:27:28.999Z</time></trkpt><trkpt lat="40.60668334734862" lon="9.638192810456378"><ele>274.0</ele><time>2026-04-30T09:27:30.999Z</time></trkpt><trkpt lat="40.60673006724802" lon="9.638088341929004"><ele>274.0</ele><time>2026-04-30T09:27:32.999Z</time></trkpt><trkpt lat="40.60681147139659" lon="9.637986416747"><ele>274.0</ele><time>2026-04-30T09:27:34.999Z</time></trkpt><trkpt lat="40.60691795139001" lon="9.63794741111195"><ele>274.0</ele><time>2026-04-30T09:27:36.999Z</time></trkpt><trkpt lat="40.60698674819428" lon="9.637918203409555"><ele>271.2</ele><time>2026-04-30T09:27:38.999Z</time></trkpt><trkpt lat="40.60704950450484" lon="9.63784120239598"><ele>268.4</ele><time>2026-04-30T09:27:40.999Z</time></trkpt><trkpt lat="40.60714105810347" lon="9.637726434887606"><ele>265.6</ele><time>2026-04-30T09:27:42.999Z</time></trkpt><trkpt lat="40.60720860555949" lon="9.637681831636623"><ele>262.8</ele><time>2026-04-30T09:27:43.999Z</time></trkpt><trkpt lat="40.60728558326006" lon="9.637657784917977"><ele>260.0</ele><time>2026-04-30T09:27:44.999Z</time></trkpt><trkpt lat="40.607364411066435" lon="9.637615290582517"><ele>266.8</ele><time>2026-04-30T09:27:45.999Z</time></trkpt><trkpt lat="40.60745073804017" lon="9.63757426841455"><ele>273.6</ele><time>2026-04-30T09:27:46.999Z</time></trkpt><trkpt lat="40.6075306024901" lon="9.637558002220667"><ele>280.4</ele><time>2026-04-30T09:27:47.999Z</time></trkpt><trkpt lat="40.60761606355807" lon="9.63754930784011"><ele>287.2</ele><time>2026-04-30T09:27:48.999Z</time></trkpt><trkpt lat="40.607740768297035" lon="9.637599272701157"><ele>294.0</ele><time>2026-04-30T09:27:50.999Z</time></trkpt><trkpt lat="40.60784125609642" lon="9.637627124458206"><ele>294.0</ele><time>2026-04-30T09:27:52.999Z</time></trkpt><trkpt lat="40.60794053654572" lon="9.637567088988728"><ele>294.0</ele><time>2026-04-30T09:27:54.999Z</time></trkpt><trkpt lat="40.60799701269934" lon="9.637518630182495"><ele>294.0</ele><time>2026-04-30T09:27:55.999Z</time></trkpt><trkpt lat="40.60806146992632" lon="9.637461491175221"><ele>294.0</ele><time>2026-04-30T09:27:56.999Z</time></trkpt><trkpt lat="40.60817472297748" lon="9.637356262635407"><ele>294.0</ele><time>2026-04-30T09:27:58.999Z</time></trkpt><trkpt lat="40.608239203801254" lon="9.637312817038234"><ele>294.0</ele><time>2026-04-30T09:27:59.999Z</time></trkpt><trkpt lat="40.60831628825054" lon="9.63726227649988"><ele>294.0</ele><time>2026-04-30T09:28:00.999Z</time></trkpt><trkpt lat="40.60839742156273" lon="9.637219216538165"><ele>294.0</ele><time>2026-04-30T09:28:01.999Z</time></trkpt><trkpt lat="40.60848404694263" lon="9.637188577516294"><ele>294.0</ele><time>2026-04-30T09:28:02.999Z</time></trkpt><trkpt lat="40.60855936069801" lon="9.637190825331414"><ele>294.0</ele><time>2026-04-30T09:28:03.999Z</time></trkpt><trkpt lat="40.60862373348197" lon="9.637224314923413"><ele>294.0</ele><time>2026-04-30T09:28:04.999Z</time></trkpt><trkpt lat="40.608686031087714" lon="9.63726603535909"><ele>293.1666666666667</ele><time>2026-04-30T09:28:05.999Z</time></trkpt><trkpt lat="40.60877352717609" lon="9.637303269966782"><ele>292.3333333333333</ele><time>2026-04-30T09:28:08Z</time></trkpt><trkpt lat="40.60884256619916" lon="9.637254860733476"><ele>291.5</ele><time>2026-04-30T09:28:10Z</time></trkpt><trkpt lat="40.608885832370085" lon="9.637137324949842"><ele>290.66666666666663</ele><time>2026-04-30T09:28:12Z</time></trkpt><trkpt lat="40.60890830186017" lon="9.637052275816485"><ele>289.8333333333333</ele><time>2026-04-30T09:28:13Z</time></trkpt><trkpt lat="40.60893978101293" lon="9.636968652905825"><ele>289.0</ele><time>2026-04-30T09:28:14Z</time></trkpt><trkpt lat="40.60897855175492" lon="9.636833866230196"><ele>292.59999999999997</ele><time>2026-04-30T09:28:16Z</time></trkpt><trkpt lat="40.60897863683997" lon="9.636686417931758"><ele>296.2</ele><time>2026-04-30T09:28:18Z</time></trkpt><trkpt lat="40.60895884936058" lon="9.63657940852663"><ele>299.79999999999995</ele><time>2026-04-30T09:28:19Z</time></trkpt><trkpt lat="40.60893684342918" lon="9.636478958928416"><ele>303.4</ele><time>2026-04-30T09:28:20Z</time></trkpt><trkpt lat="40.60891651755323" lon="9.636343291325968"><ele>307.0</ele><time>2026-04-30T09:28:22Z</time></trkpt><trkpt lat="40.60883471104896" lon="9.636299093238497"><ele>307.0</ele><time>2026-04-30T09:28:37Z</time></trkpt><trkpt lat="40.60874773401815" lon="9.636236815920006"><ele>307.0</ele><time>2026-04-30T09:28:40Z</time></trkpt><trkpt lat="40.60865251697386" lon="9.636190814168136"><ele>307.0</ele><time>2026-04-30T09:28:42Z</time></trkpt><trkpt lat="40.60854436702651" lon="9.6361440515188"><ele>307.0</ele><time>2026-04-30T09:28:44Z</time></trkpt><trkpt lat="40.608477940696" lon="9.636111753897007"><ele>307.0</ele><time>2026-04-30T09:28:45Z</time></trkpt><trkpt lat="40.60841813408916" lon="9.636082008325895"><ele>307.0</ele><time>2026-04-30T09:28:46Z</time></trkpt><trkpt lat="40.60835133968923" lon="9.636050945836784"><ele>310.0</ele><time>2026-04-30T09:28:47Z</time></trkpt><trkpt lat="40.60828859264981" lon="9.636028848121727"><ele>313.0</ele><time>2026-04-30T09:28:48Z</time></trkpt><trkpt lat="40.60817364883616" lon="9.635964326599485"><ele>316.0</ele><time>2026-04-30T09:28:50Z</time></trkpt><trkpt lat="40.60807376560986" lon="9.63591847476611"><ele>319.0</ele><time>2026-04-30T09:28:51.998Z</time></trkpt><trkpt lat="40.60796367753083" lon="9.63587276216666"><ele>322.0</ele><time>2026-04-30T09:28:53.998Z</time></trkpt><trkpt lat="40.60786759800499" lon="9.635838655182667"><ele>323.5</ele><time>2026-04-30T09:28:55.998Z</time></trkpt><trkpt lat="40.607754572379605" lon="9.635758448498306"><ele>325.0</ele><time>2026-04-30T09:28:57.997Z</time></trkpt><trkpt lat="40.60769414718538" lon="9.635716072439022"><ele>326.5</ele><time>2026-04-30T09:28:58.997Z</time></trkpt><trkpt lat="40.60762826523992" lon="9.635673313568685"><ele>328.0</ele><time>2026-04-30T09:28:59.998Z</time></trkpt><trkpt lat="40.60755741374443" lon="9.63561995870383"><ele>329.5</ele><time>2026-04-30T09:29:00.998Z</time></trkpt><trkpt lat="40.607493507819775" lon="9.635575640032584"><ele>331.0</ele><time>2026-04-30T09:29:01.998Z</time></trkpt><trkpt lat="40.607444994617886" lon="9.635520918211666"><ele>331.0</ele><time>2026-04-30T09:29:02.998Z</time></trkpt><trkpt lat="40.60738369939455" lon="9.63548639572419"><ele>331.0</ele><time>2026-04-30T09:29:03.998Z</time></trkpt><trkpt lat="40.607306607615946" lon="9.63542874251279"><ele>331.0</ele><time>2026-04-30T09:29:04.998Z</time></trkpt><trkpt lat="40.60720663051716" lon="9.63532182568252"><ele>331.0</ele><time>2026-04-30T09:29:06.998Z</time></trkpt><trkpt lat="40.607146539140466" lon="9.635250215380228"><ele>331.0</ele><time>2026-04-30T09:29:07.998Z</time></trkpt><trkpt lat="40.607095213432174" lon="9.635167355112756"><ele>331.0</ele><time>2026-04-30T09:29:08.998Z</time></trkpt><trkpt lat="40.607015003077926" lon="9.635072745682438"><ele>333.8333333333333</ele><time>2026-04-30T09:29:10.998Z</time></trkpt><trkpt lat="40.60695089118851" lon="9.6349867702506"><ele>336.66666666666663</ele><time>2026-04-30T09:29:12.998Z</time></trkpt><trkpt lat="40.6068622811836" lon="9.634950219426345"><ele>339.5</ele><time>2026-04-30T09:29:14.998Z</time></trkpt><trkpt lat="40.60679705478867" lon="9.634930166573827"><ele>342.3333333333333</ele><time>2026-04-30T09:29:15.998Z</time></trkpt><trkpt lat="40.60673513046984" lon="9.634908697949355"><ele>345.1666666666667</ele><time>2026-04-30T09:29:16.998Z</time></trkpt><trkpt lat="40.606671214912154" lon="9.634884531159942"><ele>348.0</ele><time>2026-04-30T09:29:17.998Z</time></trkpt><trkpt lat="40.60659793385286" lon="9.634852796298297"><ele>348.0</ele><time>2026-04-30T09:29:18.998Z</time></trkpt><trkpt lat="40.606525300690585" lon="9.634819580152657"><ele>348.0</ele><time>2026-04-30T09:29:19.998Z</time></trkpt><trkpt lat="40.606450194007216" lon="9.634786456484163"><ele>348.0</ele><time>2026-04-30T09:29:20.998Z</time></trkpt><trkpt lat="40.606385642295336" lon="9.634744593836002"><ele>348.0</ele><time>2026-04-30T09:29:21.998Z</time></trkpt><trkpt lat="40.60632401673507" lon="9.634699903518248"><ele>348.0</ele><time>2026-04-30T09:29:22.998Z</time></trkpt><trkpt lat="40.60619244517093" lon="9.634607264286508"><ele>348.0</ele><time>2026-04-30T09:29:24.998Z</time></trkpt><trkpt lat="40.60612215511607" lon="9.634549582074076"><ele>351.0</ele><time>2026-04-30T09:29:25.998Z</time></trkpt><trkpt lat="40.606064401467776" lon="9.634492318928814"><ele>354.0</ele><time>2026-04-30T09:29:26.998Z</time></trkpt><trkpt lat="40.605998340211016" lon="9.634409234845725"><ele>357.0</ele><time>2026-04-30T09:29:27.998Z</time></trkpt><trkpt lat="40.605947721202405" lon="9.634323610381418"><ele>360.0</ele><time>2026-04-30T09:29:28.998Z</time></trkpt><trkpt lat="40.60589645031318" lon="9.634252405758406"><ele>363.0</ele><time>2026-04-30T09:29:29.998Z</time></trkpt><trkpt lat="40.605887348386965" lon="9.63409405665477"><ele>366.0</ele><time>2026-04-30T09:29:31.998Z</time></trkpt><trkpt lat="40.60594228654248" lon="9.63395012518869"><ele>366.0</ele><time>2026-04-30T09:29:33.998Z</time></trkpt><trkpt lat="40.6059730643739" lon="9.63387043371004"><ele>366.0</ele><time>2026-04-30T09:29:34.998Z</time></trkpt><trkpt lat="40.60601417680386" lon="9.633774557430055"><ele>366.0</ele><time>2026-04-30T09:29:35.998Z</time></trkpt><trkpt lat="40.60604743147832" lon="9.633699379980332"><ele>366.0</ele><time>2026-04-30T09:29:36.998Z</time></trkpt><trkpt lat="40.606082293776865" lon="9.633609817028182"><ele>366.0</ele><time>2026-04-30T09:29:37.998Z</time></trkpt><trkpt lat="40.60611462336895" lon="9.633508833347983"><ele>366.0</ele><time>2026-04-30T09:29:38.998Z</time></trkpt><trkpt lat="40.60613649220704" lon="9.633406138879279"><ele>365.6666666666667</ele><time>2026-04-30T09:29:39.998Z</time></trkpt><trkpt lat="40.606160480307935" lon="9.633303167312379"><ele>365.3333333333333</ele><time>2026-04-30T09:29:40.998Z</time></trkpt><trkpt lat="40.60617377010964" lon="9.63320679253293"><ele>365.0</ele><time>2026-04-30T09:29:41.998Z</time></trkpt><trkpt lat="40.60617983897463" lon="9.633093583173505"><ele>364.66666666666663</ele><time>2026-04-30T09:29:42.998Z</time></trkpt><trkpt lat="40.60619654389788" lon="9.632984346355611"><ele>364.3333333333333</ele><time>2026-04-30T09:29:43.998Z</time></trkpt><trkpt lat="40.60620447311552" lon="9.632866854019028"><ele>364.0</ele><time>2026-04-30T09:29:44.998Z</time></trkpt><trkpt lat="40.60623218925365" lon="9.632767351060354"><ele>364.0</ele><time>2026-04-30T09:29:45.998Z</time></trkpt><trkpt lat="40.60627920050817" lon="9.632678886747371"><ele>364.0</ele><time>2026-04-30T09:29:46.998Z</time></trkpt><trkpt lat="40.606325978431855" lon="9.63259298084997"><ele>364.0</ele><time>2026-04-30T09:29:47.998Z</time></trkpt><trkpt lat="40.60635107759594" lon="9.632439749264892"><ele>364.0</ele><time>2026-04-30T09:29:49.998Z</time></trkpt><trkpt lat="40.606361428570914" lon="9.632354776055099"><ele>364.0</ele><time>2026-04-30T09:29:50.998Z</time></trkpt><trkpt lat="40.6063575059181" lon="9.632271877737546"><ele>364.0</ele><time>2026-04-30T09:29:51.998Z</time></trkpt><trkpt lat="40.60636076321221" lon="9.632175911190735"><ele>364.0</ele><time>2026-04-30T09:29:52.998Z</time></trkpt><trkpt lat="40.606369878441576" lon="9.632092049314819"><ele>364.0</ele><time>2026-04-30T09:29:53.998Z</time></trkpt><trkpt lat="40.60637033125461" lon="9.6319864500392"><ele>364.0</ele><time>2026-04-30T09:29:54.998Z</time></trkpt><trkpt lat="40.606366608023684" lon="9.631884848057446"><ele>364.0</ele><time>2026-04-30T09:29:55.998Z</time></trkpt><trkpt lat="40.60636919581294" lon="9.63177243087148"><ele>364.0</ele><time>2026-04-30T09:29:56.998Z</time></trkpt><trkpt lat="40.60636493292515" lon="9.631662784731631"><ele>364.0</ele><time>2026-04-30T09:29:58.998Z</time></trkpt><trkpt lat="40.60629968015924" lon="9.631624653287925"><ele>365.66666666666663</ele><time>2026-04-30T09:30:00.998Z</time></trkpt><trkpt lat="40.606239673135015" lon="9.631677551893361"><ele>367.3333333333333</ele><time>2026-04-30T09:30:02.998Z</time></trkpt><trkpt lat="40.60620570945028" lon="9.631749570618917"><ele>369.0</ele><time>2026-04-30T09:30:03.998Z</time></trkpt><trkpt lat="40.606168847656605" lon="9.63183150889866"><ele>370.6666666666667</ele><time>2026-04-30T09:30:04.998Z</time></trkpt><trkpt lat="40.60612982272663" lon="9.631897317900183"><ele>372.33333333333337</ele><time>2026-04-30T09:30:20.999Z</time></trkpt><trkpt lat="40.606166764520204" lon="9.63176559229275"><ele>374.0</ele><time>2026-04-30T09:30:35.999Z</time></trkpt><trkpt lat="40.60619448447818" lon="9.631667119113388"><ele>374.0</ele><time>2026-04-30T09:30:37.999Z</time></trkpt><trkpt lat="40.60625345453611" lon="9.631586020053822"><ele>374.0</ele><time>2026-04-30T09:30:40.999Z</time></trkpt><trkpt lat="40.60630026129413" lon="9.63152979209752"><ele>374.0</ele><time>2026-04-30T09:30:42.999Z</time></trkpt><trkpt lat="40.60634029277817" lon="9.63143699312582"><ele>374.0</ele><time>2026-04-30T09:30:44.999Z</time></trkpt><trkpt lat="40.60637891632501" lon="9.631364707776433"><ele>374.0</ele><time>2026-04-30T09:30:46.999Z</time></trkpt><trkpt lat="40.6064141593275" lon="9.63129037973932"><ele>374.0</ele><time>2026-04-30T09:30:49.999Z</time></trkpt><trkpt lat="40.60641588957102" lon="9.631182212375784"><ele>374.0</ele><time>2026-04-30T09:31:32Z</time></trkpt><trkpt lat="40.606513972751756" lon="9.63117261080124"><ele>374.0</ele><time>2026-04-30T09:31:35Z</time></trkpt><trkpt lat="40.606594049339876" lon="9.631195832626616"><ele>374.0</ele><time>2026-04-30T09:31:37.001Z</time></trkpt><trkpt lat="40.60668230561959" lon="9.631192138272638"><ele>374.0</ele><time>2026-04-30T09:31:39.001Z</time></trkpt><trkpt lat="40.60678522202248" lon="9.63118583643755"><ele>374.0</ele><time>2026-04-30T09:31:41.001Z</time></trkpt><trkpt lat="40.606886892292806" lon="9.631167518187677"><ele>374.0</ele><time>2026-04-30T09:31:43.001Z</time></trkpt><trkpt lat="40.606986631649676" lon="9.631155410598636"><ele>370.4</ele><time>2026-04-30T09:31:45.001Z</time></trkpt><trkpt lat="40.60706612430384" lon="9.631135984595897"><ele>366.79999999999995</ele><time>2026-04-30T09:31:47.001Z</time></trkpt><trkpt lat="40.607159717847104" lon="9.631113527981844"><ele>363.20000000000005</ele><time>2026-04-30T09:31:49.001Z</time></trkpt><trkpt lat="40.607255283827435" lon="9.631128642081352"><ele>359.6</ele><time>2026-04-30T09:31:51.001Z</time></trkpt><trkpt lat="40.60735430053023" lon="9.631171438242708"><ele>356.0</ele><time>2026-04-30T09:31:53.001Z</time></trkpt><trkpt lat="40.60745399800676" lon="9.63121399628325"><ele>355.6</ele><time>2026-04-30T09:31:55.001Z</time></trkpt><trkpt lat="40.607563652802924" lon="9.631237863612915"><ele>355.20000000000005</ele><time>2026-04-30T09:31:57.001Z</time></trkpt><trkpt lat="40.6076663320132" lon="9.631278290381388"><ele>354.79999999999995</ele><time>2026-04-30T09:31:59.001Z</time></trkpt><trkpt lat="40.607757619736454" lon="9.6313111303292"><ele>354.4</ele><time>2026-04-30T09:32:01.001Z</time></trkpt><trkpt lat="40.60786188575937" lon="9.631347191767926"><ele>354.0</ele><time>2026-04-30T09:32:03.001Z</time></trkpt><trkpt lat="40.60797978926397" lon="9.631379442413161"><ele>351.3333333333333</ele><time>2026-04-30T09:32:05.001Z</time></trkpt><trkpt lat="40.60804785234476" lon="9.631402505509291"><ele>348.6666666666667</ele><time>2026-04-30T09:32:06.001Z</time></trkpt><trkpt lat="40.60811656120493" lon="9.631430793435548"><ele>346.0</ele><time>2026-04-30T09:32:07.001Z</time></trkpt><trkpt lat="40.6081827873437" lon="9.631457482117005"><ele>343.33333333333337</ele><time>2026-04-30T09:32:08.001Z</time></trkpt><trkpt lat="40.60824577306497" lon="9.631483128325227"><ele>340.6666666666667</ele><time>2026-04-30T09:32:09.001Z</time></trkpt><trkpt lat="40.608312608462626" lon="9.631513672219887"><ele>338.0</ele><time>2026-04-30T09:32:10.001Z</time></trkpt><trkpt lat="40.60843289355988" lon="9.631550183576197"><ele>338.0</ele><time>2026-04-30T09:32:12.001Z</time></trkpt><trkpt lat="40.60850659981873" lon="9.63157244847748"><ele>338.0</ele><time>2026-04-30T09:32:13.001Z</time></trkpt><trkpt lat="40.608580331819404" lon="9.63159680635617"><ele>338.0</ele><time>2026-04-30T09:32:14.001Z</time></trkpt><trkpt lat="40.60865142660529" lon="9.631622357788391"><ele>338.0</ele><time>2026-04-30T09:32:15.001Z</time></trkpt><trkpt lat="40.60871875708703" lon="9.631648362096659"><ele>338.0</ele><time>2026-04-30T09:32:16.001Z</time></trkpt><trkpt lat="40.60878859869716" lon="9.631675686768189"><ele>338.0</ele><time>2026-04-30T09:32:17.001Z</time></trkpt><trkpt lat="40.608851306570934" lon="9.63170090367037"><ele>338.0</ele><time>2026-04-30T09:32:18.001Z</time></trkpt><trkpt lat="40.60896895441599" lon="9.63173829386622"><ele>337.59999999999997</ele><time>2026-04-30T09:32:20.001Z</time></trkpt><trkpt lat="40.60908293772514" lon="9.631770607516614"><ele>337.2</ele><time>2026-04-30T09:32:22.001Z</time></trkpt><trkpt lat="40.609183161419615" lon="9.631760367322387"><ele>336.8</ele><time>2026-04-30T09:32:24.002Z</time></trkpt><trkpt lat="40.609286718823896" lon="9.631704478093326"><ele>336.4</ele><time>2026-04-30T09:32:26.002Z</time></trkpt><trkpt lat="40.60938354696548" lon="9.631655919364198"><ele>336.0</ele><time>2026-04-30T09:32:28.002Z</time></trkpt><trkpt lat="40.60947081583092" lon="9.63158472605512"><ele>332.6</ele><time>2026-04-30T09:32:30.002Z</time></trkpt><trkpt lat="40.60956727443536" lon="9.631521337448428"><ele>329.20000000000005</ele><time>2026-04-30T09:32:32.002Z</time></trkpt><trkpt lat="40.609668537382916" lon="9.631453149094835"><ele>325.79999999999995</ele><time>2026-04-30T09:32:34.002Z</time></trkpt><trkpt lat="40.60974188455255" lon="9.631405016171627"><ele>322.4</ele><time>2026-04-30T09:32:36.002Z</time></trkpt><trkpt lat="40.609794167924456" lon="9.631320585190698"><ele>319.0</ele><time>2026-04-30T09:32:38.002Z</time></trkpt><trkpt lat="40.60983216140651" lon="9.631207337976996"><ele>316.8</ele><time>2026-04-30T09:32:40.002Z</time></trkpt><trkpt lat="40.60988314225524" lon="9.63110865288922"><ele>314.59999999999997</ele><time>2026-04-30T09:32:42.002Z</time></trkpt><trkpt lat="40.60996556241503" lon="9.631037439627628"><ele>312.4</ele><time>2026-04-30T09:32:44.002Z</time></trkpt><trkpt lat="40.61005163925673" lon="9.630974554703057"><ele>310.2</ele><time>2026-04-30T09:32:46.002Z</time></trkpt><trkpt lat="40.61013776280663" lon="9.630918503156746"><ele>308.0</ele><time>2026-04-30T09:32:48.002Z</time></trkpt><trkpt lat="40.61021532763688" lon="9.630886713441472"><ele>308.0</ele><time>2026-04-30T09:32:50.002Z</time></trkpt><trkpt lat="40.61028176730111" lon="9.63085526920986"><ele>308.0</ele><time>2026-04-30T09:32:52.002Z</time></trkpt><trkpt lat="40.61034988204663" lon="9.630824427485894"><ele>308.0</ele><time>2026-04-30T09:32:54.002Z</time></trkpt><trkpt lat="40.61042223027044" lon="9.630756567050602"><ele>308.0</ele><time>2026-04-30T09:32:56.002Z</time></trkpt><trkpt lat="40.61045281517798" lon="9.630663373433386"><ele>308.0</ele><time>2026-04-30T09:32:59.002Z</time></trkpt><trkpt lat="40.610445688064424" lon="9.630542713326205"><ele>308.0</ele><time>2026-04-30T09:33:01.002Z</time></trkpt><trkpt lat="40.610443655739495" lon="9.630372843049514"><ele>308.6666666666667</ele><time>2026-04-30T09:33:03.001Z</time></trkpt><trkpt lat="40.610453689558184" lon="9.63027255495421"><ele>309.33333333333337</ele><time>2026-04-30T09:33:04.001Z</time></trkpt><trkpt lat="40.61046077204336" lon="9.630165497679078"><ele>310.0</ele><time>2026-04-30T09:33:05.001Z</time></trkpt><trkpt lat="40.61047082624449" lon="9.630060251683465"><ele>310.6666666666667</ele><time>2026-04-30T09:33:06.001Z</time></trkpt><trkpt lat="40.610484666602574" lon="9.629959036832576"><ele>311.3333333333333</ele><time>2026-04-30T09:33:07.001Z</time></trkpt><trkpt lat="40.610500299878495" lon="9.629866111460842"><ele>312.0</ele><time>2026-04-30T09:33:08.001Z</time></trkpt><trkpt lat="40.61052884497829" lon="9.629785324650117"><ele>312.0</ele><time>2026-04-30T09:33:09.001Z</time></trkpt><trkpt lat="40.61058416903227" lon="9.629701462950596"><ele>312.0</ele><time>2026-04-30T09:33:10.001Z</time></trkpt><trkpt lat="40.61064498803202" lon="9.629614776901445"><ele>312.0</ele><time>2026-04-30T09:33:11.001Z</time></trkpt><trkpt lat="40.61069366680436" lon="9.629530432020262"><ele>312.0</ele><time>2026-04-30T09:33:12.001Z</time></trkpt><trkpt lat="40.61074636551669" lon="9.629443755199627"><ele>312.0</ele><time>2026-04-30T09:33:13.001Z</time></trkpt><trkpt lat="40.61078657743374" lon="9.629338285025812"><ele>312.0</ele><time>2026-04-30T09:33:14.001Z</time></trkpt><trkpt lat="40.61081504213849" lon="9.629219504428171"><ele>310.0</ele><time>2026-04-30T09:33:15.001Z</time></trkpt><trkpt lat="40.610830655849206" lon="9.62910363716625"><ele>308.0</ele><time>2026-04-30T09:33:16.001Z</time></trkpt><trkpt lat="40.61085452124905" lon="9.62899732682424"><ele>306.0</ele><time>2026-04-30T09:33:17.001Z</time></trkpt><trkpt lat="40.61087541692602" lon="9.628895858022428"><ele>304.0</ele><time>2026-04-30T09:33:18.001Z</time></trkpt><trkpt lat="40.610902027606784" lon="9.628794648199886"><ele>302.0</ele><time>2026-04-30T09:33:19.001Z</time></trkpt><trkpt lat="40.61093522511674" lon="9.628714230298675"><ele>300.0</ele><time>2026-04-30T09:33:20.001Z</time></trkpt><trkpt lat="40.610974206387276" lon="9.628626180860087"><ele>296.6</ele><time>2026-04-30T09:33:21.001Z</time></trkpt><trkpt lat="40.611009589301126" lon="9.628549113564828"><ele>293.2</ele><time>2026-04-30T09:33:22.001Z</time></trkpt><trkpt lat="40.61106445950548" lon="9.628405563156594"><ele>289.8</ele><time>2026-04-30T09:33:24.001Z</time></trkpt><trkpt lat="40.61112799180305" lon="9.628274969292383"><ele>286.4</ele><time>2026-04-30T09:33:26.001Z</time></trkpt><trkpt lat="40.61116308819842" lon="9.62815564775884"><ele>283.0</ele><time>2026-04-30T09:33:28.001Z</time></trkpt><trkpt lat="40.611190169252225" lon="9.628041352838768"><ele>281.0</ele><time>2026-04-30T09:33:30.001Z</time></trkpt><trkpt lat="40.611219037964915" lon="9.627944274829847"><ele>279.0</ele><time>2026-04-30T09:33:32.001Z</time></trkpt><trkpt lat="40.61122790526147" lon="9.62785540527424"><ele>277.0</ele><time>2026-04-30T09:33:33.001Z</time></trkpt><trkpt lat="40.61123848223041" lon="9.627771517900461"><ele>275.0</ele><time>2026-04-30T09:33:34.001Z</time></trkpt><trkpt lat="40.61126023140742" lon="9.627666658153482"><ele>273.0</ele><time>2026-04-30T09:33:35.001Z</time></trkpt><trkpt lat="40.6112845343457" lon="9.627565048156491"><ele>271.0</ele><time>2026-04-30T09:33:36.001Z</time></trkpt><trkpt lat="40.61130202286044" lon="9.62745875872839"><ele>270.8</ele><time>2026-04-30T09:33:37.001Z</time></trkpt><trkpt lat="40.61131397024712" lon="9.627359287238008"><ele>270.6</ele><time>2026-04-30T09:33:38.001Z</time></trkpt><trkpt lat="40.61133213647571" lon="9.627272831364229"><ele>270.4</ele><time>2026-04-30T09:33:39.001Z</time></trkpt><trkpt lat="40.61135258577289" lon="9.62719121893027"><ele>270.2</ele><time>2026-04-30T09:33:40.001Z</time></trkpt><trkpt lat="40.61141565878846" lon="9.62703764209099"><ele>270.0</ele><time>2026-04-30T09:33:42.001Z</time></trkpt><trkpt lat="40.61147773093073" lon="9.62689718190464"><ele>270.0</ele><time>2026-04-30T09:33:44.001Z</time></trkpt><trkpt lat="40.61149133650808" lon="9.626799700684709"><ele>270.0</ele><time>2026-04-30T09:33:45.001Z</time></trkpt><trkpt lat="40.61150281400205" lon="9.626708011959682"><ele>270.0</ele><time>2026-04-30T09:33:46.001Z</time></trkpt><trkpt lat="40.611510612259124" lon="9.626576362514667"><ele>270.0</ele><time>2026-04-30T09:33:47.001Z</time></trkpt><trkpt lat="40.61150892252202" lon="9.626490127386832"><ele>270.0</ele><time>2026-04-30T09:33:48.001Z</time></trkpt><trkpt lat="40.611462296836" lon="9.626377216074054"><ele>270.0</ele><time>2026-04-30T09:33:50.001Z</time></trkpt><trkpt lat="40.61140785233806" lon="9.62628991836752"><ele>270.0</ele><time>2026-04-30T09:33:51.001Z</time></trkpt><trkpt lat="40.6113637955098" lon="9.626204471333535"><ele>270.0</ele><time>2026-04-30T09:33:52.001Z</time></trkpt><trkpt lat="40.61134095658096" lon="9.62604191889857"><ele>270.0</ele><time>2026-04-30T09:33:54.001Z</time></trkpt><trkpt lat="40.6113560197925" lon="9.62594681696218"><ele>270.0</ele><time>2026-04-30T09:33:55.001Z</time></trkpt><trkpt lat="40.611381614858324" lon="9.625856114248048"><ele>270.0</ele><time>2026-04-30T09:33:56.001Z</time></trkpt><trkpt lat="40.61141114969728" lon="9.625763846374223"><ele>270.0</ele><time>2026-04-30T09:33:57.001Z</time></trkpt><trkpt lat="40.61143646499298" lon="9.625642637470287"><ele>271.6</ele><time>2026-04-30T09:33:58.001Z</time></trkpt><trkpt lat="40.611472917671094" lon="9.62551901257773"><ele>273.2</ele><time>2026-04-30T09:33:59.001Z</time></trkpt><trkpt lat="40.61150100633217" lon="9.625379985382688"><ele>274.8</ele><time>2026-04-30T09:34:00.001Z</time></trkpt><trkpt lat="40.61152454277868" lon="9.625244720961486"><ele>276.4</ele><time>2026-04-30T09:34:01.001Z</time></trkpt><trkpt lat="40.611551562328934" lon="9.625123846059823"><ele>278.0</ele><time>2026-04-30T09:34:02.001Z</time></trkpt><trkpt lat="40.61156321419437" lon="9.62501048032746"><ele>278.0</ele><time>2026-04-30T09:34:03.001Z</time></trkpt><trkpt lat="40.61158208202518" lon="9.624904050725002"><ele>278.0</ele><time>2026-04-30T09:34:04.001Z</time></trkpt><trkpt lat="40.611576594763676" lon="9.624783879711583"><ele>278.0</ele><time>2026-04-30T09:34:05.001Z</time></trkpt><trkpt lat="40.611565283363575" lon="9.624660387104235"><ele>278.0</ele><time>2026-04-30T09:34:06.001Z</time></trkpt><trkpt lat="40.611539835312136" lon="9.6245471512799"><ele>278.0</ele><time>2026-04-30T09:34:07.001Z</time></trkpt><trkpt lat="40.611508548004274" lon="9.624424739805347"><ele>278.0</ele><time>2026-04-30T09:34:08.001Z</time></trkpt><trkpt lat="40.611493701218734" lon="9.624323551566125"><ele>278.0</ele><time>2026-04-30T09:34:09.001Z</time></trkpt><trkpt lat="40.6114642639888" lon="9.624194244196747"><ele>278.0</ele><time>2026-04-30T09:34:10.001Z</time></trkpt><trkpt lat="40.611449288671764" lon="9.624096384049105"><ele>278.0</ele><time>2026-04-30T09:34:11.001Z</time></trkpt><trkpt lat="40.61142654340875" lon="9.62401026496526"><ele>278.0</ele><time>2026-04-30T09:34:12.001Z</time></trkpt><trkpt lat="40.61137353633416" lon="9.623922742321312"><ele>278.0</ele><time>2026-04-30T09:34:13.001Z</time></trkpt><trkpt lat="40.61130799323736" lon="9.623845803595634"><ele>278.0</ele><time>2026-04-30T09:34:14.001Z</time></trkpt><trkpt lat="40.611244253281946" lon="9.623791042651348"><ele>278.0</ele><time>2026-04-30T09:34:15.001Z</time></trkpt><trkpt lat="40.61118045374398" lon="9.623707908148912"><ele>278.0</ele><time>2026-04-30T09:34:17.001Z</time></trkpt><trkpt lat="40.61118497394147" lon="9.623614472945132"><ele>278.0</ele><time>2026-04-30T09:34:19.001Z</time></trkpt><trkpt lat="40.61122713764498" lon="9.623495790244219"><ele>278.0</ele><time>2026-04-30T09:34:21.002Z</time></trkpt><trkpt lat="40.61128828111578" lon="9.62335611862154"><ele>276.33333333333337</ele><time>2026-04-30T09:34:23.002Z</time></trkpt><trkpt lat="40.61134666946791" lon="9.623246374738482"><ele>274.6666666666667</ele><time>2026-04-30T09:34:25.002Z</time></trkpt><trkpt lat="40.61140850364438" lon="9.623142067756712"><ele>273.0</ele><time>2026-04-30T09:34:27.002Z</time></trkpt><trkpt lat="40.61145897150407" lon="9.623077064398865"><ele>271.3333333333333</ele><time>2026-04-30T09:34:29.002Z</time></trkpt><trkpt lat="40.6115268173045" lon="9.62303747864587"><ele>269.66666666666663</ele><time>2026-04-30T09:34:31.002Z</time></trkpt><trkpt lat="40.611611692360334" lon="9.623024711684305"><ele>268.0</ele><time>2026-04-30T09:34:33.002Z</time></trkpt><trkpt lat="40.61169106177803" lon="9.623062552791287"><ele>268.0</ele><time>2026-04-30T09:34:36.002Z</time></trkpt><trkpt lat="40.61176141536868" lon="9.623106000578854"><ele>268.0</ele><time>2026-04-30T09:34:38.002Z</time></trkpt><trkpt lat="40.61186890676316" lon="9.623193458611688"><ele>268.0</ele><time>2026-04-30T09:34:40.002Z</time></trkpt><trkpt lat="40.61198380839861" lon="9.623298042228091"><ele>268.0</ele><time>2026-04-30T09:34:42.002Z</time></trkpt><trkpt lat="40.612074485124595" lon="9.623416762268752"><ele>264.7142857142857</ele><time>2026-04-30T09:34:44.002Z</time></trkpt><trkpt lat="40.61210839862789" lon="9.623495735089026"><ele>261.42857142857144</ele><time>2026-04-30T09:34:45.002Z</time></trkpt><trkpt lat="40.612143102654535" lon="9.623576768217129"><ele>258.1428571428571</ele><time>2026-04-30T09:34:46.002Z</time></trkpt><trkpt lat="40.61217326467984" lon="9.62364994855999"><ele>254.85714285714286</ele><time>2026-04-30T09:34:47.002Z</time></trkpt><trkpt lat="40.61219848234787" lon="9.62373261867397"><ele>251.57142857142856</ele><time>2026-04-30T09:34:48.002Z</time></trkpt><trkpt lat="40.6122130744241" lon="9.623820571715171"><ele>248.28571428571428</ele><time>2026-04-30T09:34:49.002Z</time></trkpt><trkpt lat="40.61222351002519" lon="9.623909908415984"><ele>245.0</ele><time>2026-04-30T09:34:50.002Z</time></trkpt><trkpt lat="40.61223352108239" lon="9.623998505212002"><ele>245.00000000000003</ele><time>2026-04-30T09:34:51.002Z</time></trkpt><trkpt lat="40.612257495489615" lon="9.62409982152139"><ele>245.0</ele><time>2026-04-30T09:34:52.002Z</time></trkpt><trkpt lat="40.61227134874762" lon="9.624200471515765"><ele>245.0</ele><time>2026-04-30T09:34:53.002Z</time></trkpt><trkpt lat="40.612280493933596" lon="9.624292374638907"><ele>245.0</ele><time>2026-04-30T09:34:54.002Z</time></trkpt><trkpt lat="40.61229799542271" lon="9.624378501593844"><ele>245.00000000000003</ele><time>2026-04-30T09:34:55.002Z</time></trkpt><trkpt lat="40.61231205191519" lon="9.62447154480803"><ele>245.0</ele><time>2026-04-30T09:34:56.002Z</time></trkpt><trkpt lat="40.612340384172086" lon="9.624578924848429"><ele>245.33333333333334</ele><time>2026-04-30T09:34:57.002Z</time></trkpt><trkpt lat="40.612372931441946" lon="9.624685088898278"><ele>245.66666666666669</ele><time>2026-04-30T09:34:58.002Z</time></trkpt><trkpt lat="40.61239662833129" lon="9.6247833581769"><ele>246.0</ele><time>2026-04-30T09:34:59.002Z</time></trkpt><trkpt lat="40.612422110080466" lon="9.624884207951732"><ele>246.33333333333331</ele><time>2026-04-30T09:35:00.002Z</time></trkpt><trkpt lat="40.612447061764264" lon="9.624974227433633"><ele>246.66666666666666</ele><time>2026-04-30T09:35:01.002Z</time></trkpt><trkpt lat="40.612480146751686" lon="9.62505478723589"><ele>247.0</ele><time>2026-04-30T09:35:02.002Z</time></trkpt><trkpt lat="40.612509372067514" lon="9.625140612132075"><ele>246.99999999999997</ele><time>2026-04-30T09:35:03.002Z</time></trkpt><trkpt lat="40.61252780499869" lon="9.625238375892385"><ele>247.0</ele><time>2026-04-30T09:35:04.002Z</time></trkpt><trkpt lat="40.612534270881014" lon="9.625335141075354"><ele>247.0</ele><time>2026-04-30T09:35:05.002Z</time></trkpt><trkpt lat="40.61254629170852" lon="9.625441245101335"><ele>247.0</ele><time>2026-04-30T09:35:06.002Z</time></trkpt><trkpt lat="40.6125641402455" lon="9.625546018462854"><ele>246.99999999999997</ele><time>2026-04-30T09:35:07.002Z</time></trkpt><trkpt lat="40.61259386713882" lon="9.625652996852752"><ele>247.0</ele><time>2026-04-30T09:35:08.002Z</time></trkpt><trkpt lat="40.61263422622826" lon="9.625755811690286"><ele>247.33333333333331</ele><time>2026-04-30T09:35:09.001Z</time></trkpt><trkpt lat="40.61266104106176" lon="9.625854037143503"><ele>247.66666666666666</ele><time>2026-04-30T09:35:10.001Z</time></trkpt><trkpt lat="40.612682208099706" lon="9.625956538498475"><ele>248.0</ele><time>2026-04-30T09:35:11.001Z</time></trkpt><trkpt lat="40.61270021966995" lon="9.626048480833875"><ele>248.33333333333331</ele><time>2026-04-30T09:35:12.001Z</time></trkpt><trkpt lat="40.612715830925914" lon="9.626147736912952"><ele>248.66666666666666</ele><time>2026-04-30T09:35:13.001Z</time></trkpt><trkpt lat="40.612715415579565" lon="9.626300823609538"><ele>249.0</ele><time>2026-04-30T09:35:15.001Z</time></trkpt><trkpt lat="40.61266352514735" lon="9.62643758183064"><ele>246.83333333333334</ele><time>2026-04-30T09:35:17.001Z</time></trkpt><trkpt lat="40.61258073303559" lon="9.62652752868511"><ele>244.66666666666669</ele><time>2026-04-30T09:35:19.001Z</time></trkpt><trkpt lat="40.61250159702769" lon="9.626599256366449"><ele>242.5</ele><time>2026-04-30T09:35:21.001Z</time></trkpt><trkpt lat="40.61244974327273" lon="9.626692142122318"><ele>240.33333333333334</ele><time>2026-04-30T09:35:22Z</time></trkpt><trkpt lat="40.61240982701518" lon="9.626763962551408"><ele>238.16666666666669</ele><time>2026-04-30T09:35:23Z</time></trkpt><trkpt lat="40.61236811233056" lon="9.626843037318757"><ele>236.0</ele><time>2026-04-30T09:35:24Z</time></trkpt><trkpt lat="40.61233699527332" lon="9.626930129452314"><ele>233.50000000000003</ele><time>2026-04-30T09:35:25Z</time></trkpt><trkpt lat="40.61229931326402" lon="9.627020964775832"><ele>231.0</ele><time>2026-04-30T09:35:26Z</time></trkpt><trkpt lat="40.61228337767573" lon="9.627125186333869"><ele>228.5</ele><time>2026-04-30T09:35:28Z</time></trkpt><trkpt lat="40.61228543685896" lon="9.627215116581826"><ele>226.0</ele><time>2026-04-30T09:35:29Z</time></trkpt><trkpt lat="40.61229013778333" lon="9.62737847876035"><ele>223.50000000000003</ele><time>2026-04-30T09:35:31Z</time></trkpt><trkpt lat="40.61229975859236" lon="9.627475227618723"><ele>221.0</ele><time>2026-04-30T09:35:32Z</time></trkpt><trkpt lat="40.61230958146758" lon="9.627569896652531"><ele>221.0</ele><time>2026-04-30T09:35:33Z</time></trkpt><trkpt lat="40.61235558213514" lon="9.627700849520558"><ele>221.00000000000003</ele><time>2026-04-30T09:35:35Z</time></trkpt><trkpt lat="40.61244845915972" lon="9.62785708272518"><ele>221.00000000000003</ele><time>2026-04-30T09:35:37.001Z</time></trkpt><trkpt lat="40.61251962430628" lon="9.627935020672714"><ele>221.0</ele><time>2026-04-30T09:35:38.001Z</time></trkpt><trkpt lat="40.612567690900086" lon="9.6279948642266"><ele>221.0</ele><time>2026-04-30T09:35:39.001Z</time></trkpt><trkpt lat="40.61261468565401" lon="9.628088752860336"><ele>220.66666666666669</ele><time>2026-04-30T09:35:40.001Z</time></trkpt><trkpt lat="40.61264239051878" lon="9.628171920104002"><ele>220.33333333333334</ele><time>2026-04-30T09:35:41.001Z</time></trkpt><trkpt lat="40.612671844495075" lon="9.628254640308779"><ele>220.0</ele><time>2026-04-30T09:35:42.001Z</time></trkpt><trkpt lat="40.61269398101041" lon="9.628361858900908"><ele>219.66666666666669</ele><time>2026-04-30T09:35:43.001Z</time></trkpt><trkpt lat="40.61273202896296" lon="9.628454645907471"><ele>219.33333333333334</ele><time>2026-04-30T09:35:44.001Z</time></trkpt><trkpt lat="40.61275976483347" lon="9.62854172947692"><ele>219.0</ele><time>2026-04-30T09:35:45.001Z</time></trkpt><trkpt lat="40.612825133642744" lon="9.628691581775692"><ele>219.0</ele><time>2026-04-30T09:35:47.001Z</time></trkpt><trkpt lat="40.612899163492216" lon="9.628754496271489"><ele>218.99999999999997</ele><time>2026-04-30T09:35:48.001Z</time></trkpt><trkpt lat="40.61299272014864" lon="9.628835695858069"><ele>218.99999999999997</ele><time>2026-04-30T09:35:49.001Z</time></trkpt><trkpt lat="40.61307274971791" lon="9.628919220963876"><ele>219.0</ele><time>2026-04-30T09:35:50.001Z</time></trkpt><trkpt lat="40.613150361938246" lon="9.628992733345246"><ele>219.0</ele><time>2026-04-30T09:35:51.001Z</time></trkpt><trkpt lat="40.61320822702458" lon="9.629041072023295"><ele>219.0</ele><time>2026-04-30T09:35:52.001Z</time></trkpt><trkpt lat="40.613282869414434" lon="9.629081083699692"><ele>219.0</ele><time>2026-04-30T09:35:53.001Z</time></trkpt><trkpt lat="40.61335086179402" lon="9.62912424074726"><ele>219.0</ele><time>2026-04-30T09:35:54.001Z</time></trkpt><trkpt lat="40.61343004346547" lon="9.629189706407661"><ele>219.0</ele><time>2026-04-30T09:35:55.001Z</time></trkpt><trkpt lat="40.61349740431962" lon="9.629254724758464"><ele>219.0</ele><time>2026-04-30T09:35:56.001Z</time></trkpt><trkpt lat="40.61356964354484" lon="9.629325510401332"><ele>219.0</ele><time>2026-04-30T09:35:57.001Z</time></trkpt><trkpt lat="40.61362163773443" lon="9.629397174808746"><ele>218.66666666666666</ele><time>2026-04-30T09:35:58.001Z</time></trkpt><trkpt lat="40.6136740106051" lon="9.629451300890294"><ele>218.33333333333331</ele><time>2026-04-30T09:35:59.001Z</time></trkpt><trkpt lat="40.61373847979269" lon="9.629573628463726"><ele>218.0</ele><time>2026-04-30T09:36:01.001Z</time></trkpt><trkpt lat="40.61376553256226" lon="9.629705654758721"><ele>217.66666666666666</ele><time>2026-04-30T09:36:03.001Z</time></trkpt><trkpt lat="40.61377243723154" lon="9.629801514051003"><ele>217.33333333333331</ele><time>2026-04-30T09:36:04.001Z</time></trkpt><trkpt lat="40.613785224756555" lon="9.629890482502729"><ele>217.0</ele><time>2026-04-30T09:36:05.001Z</time></trkpt><trkpt lat="40.61385269528483" lon="9.629966541854154"><ele>216.99999999999997</ele><time>2026-04-30T09:36:07.001Z</time></trkpt><trkpt lat="40.61393867352011" lon="9.629924174807785"><ele>217.0</ele><time>2026-04-30T09:36:09.001Z</time></trkpt><trkpt lat="40.614006023310885" lon="9.629796713730212"><ele>217.0</ele><time>2026-04-30T09:36:11.001Z</time></trkpt><trkpt lat="40.614045655786335" lon="9.629717578808274"><ele>217.0</ele><time>2026-04-30T09:36:12.001Z</time></trkpt><trkpt lat="40.61407944026459" lon="9.629630173939445"><ele>216.99999999999997</ele><time>2026-04-30T09:36:13.001Z</time></trkpt><trkpt lat="40.61411501265675" lon="9.629551658955869"><ele>217.0</ele><time>2026-04-30T09:36:14.001Z</time></trkpt><trkpt lat="40.61414187107057" lon="9.629474156004596"><ele>215.33333333333331</ele><time>2026-04-30T09:36:15.001Z</time></trkpt><trkpt lat="40.61416400494521" lon="9.629388049339532"><ele>213.66666666666666</ele><time>2026-04-30T09:36:16.001Z</time></trkpt><trkpt lat="40.61418228701914" lon="9.629218773187615"><ele>212.0</ele><time>2026-04-30T09:36:18.001Z</time></trkpt><trkpt lat="40.61416521312339" lon="9.629125000202995"><ele>210.33333333333331</ele><time>2026-04-30T09:36:19.001Z</time></trkpt><trkpt lat="40.61414077160239" lon="9.629024481782206"><ele>208.66666666666666</ele><time>2026-04-30T09:36:20.001Z</time></trkpt><trkpt lat="40.614116136736904" lon="9.628916895538692"><ele>207.0</ele><time>2026-04-30T09:36:21.001Z</time></trkpt><trkpt lat="40.61408939768464" lon="9.628822628148017"><ele>207.0</ele><time>2026-04-30T09:36:22.001Z</time></trkpt><trkpt lat="40.61406745885975" lon="9.628720539875138"><ele>207.0</ele><time>2026-04-30T09:36:23.001Z</time></trkpt><trkpt lat="40.61404223586081" lon="9.62862646827737"><ele>207.0</ele><time>2026-04-30T09:36:24.001Z</time></trkpt><trkpt lat="40.61401378497817" lon="9.628483171900696"><ele>207.0</ele><time>2026-04-30T09:36:26.001Z</time></trkpt><trkpt lat="40.614038375289724" lon="9.62831706599781"><ele>207.0</ele><time>2026-04-30T09:36:28.001Z</time></trkpt><trkpt lat="40.61409210100917" lon="9.62818533243577"><ele>206.33333333333334</ele><time>2026-04-30T09:36:30.001Z</time></trkpt><trkpt lat="40.614177858345336" lon="9.628108845516156"><ele>205.66666666666669</ele><time>2026-04-30T09:36:32.001Z</time></trkpt><trkpt lat="40.614243478328795" lon="9.628079474574173"><ele>205.0</ele><time>2026-04-30T09:36:33.001Z</time></trkpt><trkpt lat="40.614320225012364" lon="9.62804157912676"><ele>204.33333333333334</ele><time>2026-04-30T09:36:34.001Z</time></trkpt><trkpt lat="40.61439482938552" lon="9.628024634995377"><ele>203.66666666666669</ele><time>2026-04-30T09:36:35.001Z</time></trkpt><trkpt lat="40.61447713301252" lon="9.627998690527644"><ele>203.0</ele><time>2026-04-30T09:36:36.001Z</time></trkpt><trkpt lat="40.6145571731689" lon="9.628004785825304"><ele>203.00000000000003</ele><time>2026-04-30T09:36:37.001Z</time></trkpt><trkpt lat="40.614632710985745" lon="9.62798631081431"><ele>203.0</ele><time>2026-04-30T09:36:38.001Z</time></trkpt><trkpt lat="40.61470598609258" lon="9.627959134235718"><ele>203.0</ele><time>2026-04-30T09:36:39.001Z</time></trkpt><trkpt lat="40.61477035776723" lon="9.627950861312836"><ele>203.0</ele><time>2026-04-30T09:36:40.002Z</time></trkpt><trkpt lat="40.61483833905064" lon="9.627949892760942"><ele>203.00000000000003</ele><time>2026-04-30T09:36:41.002Z</time></trkpt><trkpt lat="40.61495021868674" lon="9.62793610576181"><ele>203.0</ele><time>2026-04-30T09:36:43.002Z</time></trkpt><trkpt lat="40.615009873950136" lon="9.627894800011493"><ele>203.0</ele><time>2026-04-30T09:36:44.002Z</time></trkpt><trkpt lat="40.61507443040637" lon="9.62784142744816"><ele>203.0</ele><time>2026-04-30T09:36:45.002Z</time></trkpt><trkpt lat="40.615128504222" lon="9.627792640020427"><ele>203.0</ele><time>2026-04-30T09:36:46.002Z</time></trkpt><trkpt lat="40.615190863318766" lon="9.62772109235015"><ele>203.0</ele><time>2026-04-30T09:36:47.002Z</time></trkpt><trkpt lat="40.61524252153683" lon="9.627658737961495"><ele>203.0</ele><time>2026-04-30T09:36:48.002Z</time></trkpt><trkpt lat="40.61529631902636" lon="9.627595796284107"><ele>203.0</ele><time>2026-04-30T09:36:49.002Z</time></trkpt><trkpt lat="40.61536030762508" lon="9.627538018529586"><ele>203.0</ele><time>2026-04-30T09:36:50.002Z</time></trkpt><trkpt lat="40.615413948871286" lon="9.6274798482921"><ele>198.83333333333334</ele><time>2026-04-30T09:36:51.002Z</time></trkpt><trkpt lat="40.61546645439207" lon="9.62742165504267"><ele>194.66666666666669</ele><time>2026-04-30T09:36:52.002Z</time></trkpt><trkpt lat="40.61550927041706" lon="9.627335215005688"><ele>190.5</ele><time>2026-04-30T09:36:53.002Z</time></trkpt><trkpt lat="40.615540160033845" lon="9.627223522719497"><ele>186.33333333333334</ele><time>2026-04-30T09:36:54.002Z</time></trkpt><trkpt lat="40.61555524682589" lon="9.627140095863728"><ele>182.16666666666669</ele><time>2026-04-30T09:36:55.002Z</time></trkpt><trkpt lat="40.61562671321065" lon="9.627009349212168"><ele>178.0</ele><time>2026-04-30T09:36:57.002Z</time></trkpt><trkpt lat="40.61575720685645" lon="9.626941834254392"><ele>178.0</ele><time>2026-04-30T09:36:59.002Z</time></trkpt><trkpt lat="40.61587959572868" lon="9.626939713290335"><ele>178.0</ele><time>2026-04-30T09:37:01.002Z</time></trkpt><trkpt lat="40.615987833702796" lon="9.62695380432079"><ele>178.0</ele><time>2026-04-30T09:37:03.002Z</time></trkpt><trkpt lat="40.616072612273236" lon="9.627050293991088"><ele>178.0</ele><time>2026-04-30T09:37:05.002Z</time></trkpt><trkpt lat="40.616135042259785" lon="9.627176386755208"><ele>175.83333333333334</ele><time>2026-04-30T09:37:07.002Z</time></trkpt><trkpt lat="40.616159138707715" lon="9.62727029297782"><ele>173.66666666666669</ele><time>2026-04-30T09:37:08.002Z</time></trkpt><trkpt lat="40.61616767128818" lon="9.627357423581683"><ele>171.5</ele><time>2026-04-30T09:37:09.002Z</time></trkpt><trkpt lat="40.61619392378121" lon="9.627538416238712"><ele>169.33333333333334</ele><time>2026-04-30T09:37:11.002Z</time></trkpt><trkpt lat="40.61622523343906" lon="9.627642758531897"><ele>167.16666666666666</ele><time>2026-04-30T09:37:12.002Z</time></trkpt><trkpt lat="40.61624353740939" lon="9.627742814397948"><ele>165.0</ele><time>2026-04-30T09:37:13.002Z</time></trkpt><trkpt lat="40.6162670812235" lon="9.627824365908326"><ele>165.0</ele><time>2026-04-30T09:37:14.001Z</time></trkpt><trkpt lat="40.616318170249194" lon="9.62794696937102"><ele>165.0</ele><time>2026-04-30T09:37:16.001Z</time></trkpt><trkpt lat="40.61641258172835" lon="9.62799482916422"><ele>165.0</ele><time>2026-04-30T09:37:18Z</time></trkpt><trkpt lat="40.61652471214423" lon="9.627979993035527"><ele>165.0</ele><time>2026-04-30T09:37:20.001Z</time></trkpt><trkpt lat="40.61659986088576" lon="9.627950442816068"><ele>165.0</ele><time>2026-04-30T09:37:21.001Z</time></trkpt><trkpt lat="40.616667895372615" lon="9.627927452282528"><ele>165.0</ele><time>2026-04-30T09:37:22.001Z</time></trkpt><trkpt lat="40.616739438489496" lon="9.627908971830339"><ele>165.0</ele><time>2026-04-30T09:37:23.001Z</time></trkpt><trkpt lat="40.61684505516316" lon="9.6279491372074"><ele>165.0</ele><time>2026-04-30T09:37:25Z</time></trkpt><trkpt lat="40.61689906196672" lon="9.628006791486431"><ele>165.0</ele><time>2026-04-30T09:37:26.001Z</time></trkpt><trkpt lat="40.616955453380164" lon="9.628089913653099"><ele>165.0</ele><time>2026-04-30T09:37:27.001Z</time></trkpt><trkpt lat="40.61699637108645" lon="9.628173088555634"><ele>165.0</ele><time>2026-04-30T09:37:28.001Z</time></trkpt><trkpt lat="40.617037915582564" lon="9.628245620561941"><ele>163.0</ele><time>2026-04-30T09:37:29.001Z</time></trkpt><trkpt lat="40.61708987185341" lon="9.628322993584053"><ele>161.0</ele><time>2026-04-30T09:37:30.001Z</time></trkpt><trkpt lat="40.61713726200838" lon="9.628412934562741"><ele>159.0</ele><time>2026-04-30T09:37:31.001Z</time></trkpt><trkpt lat="40.61720190560224" lon="9.628493786530617"><ele>157.0</ele><time>2026-04-30T09:37:32.001Z</time></trkpt><trkpt lat="40.617246071352945" lon="9.62857270980085"><ele>155.0</ele><time>2026-04-30T09:37:33.001Z</time></trkpt><trkpt lat="40.61730293412639" lon="9.628622926370857"><ele>153.0</ele><time>2026-04-30T09:37:34.001Z</time></trkpt><trkpt lat="40.617368843856866" lon="9.628627755751012"><ele>153.0</ele><time>2026-04-30T09:37:36.001Z</time></trkpt><trkpt lat="40.617418776264046" lon="9.628534673671584"><ele>153.0</ele><time>2026-04-30T09:37:48.001Z</time></trkpt><trkpt lat="40.61739190648728" lon="9.628437219924598"><ele>153.0</ele><time>2026-04-30T09:37:51.001Z</time></trkpt><trkpt lat="40.6173577836226" lon="9.62832567324546"><ele>153.0</ele><time>2026-04-30T09:37:54.001Z</time></trkpt><trkpt lat="40.61734801739791" lon="9.628221548466959"><ele>153.0</ele><time>2026-04-30T09:37:56.001Z</time></trkpt><trkpt lat="40.617294000474686" lon="9.628162493492269"><ele>153.0</ele><time>2026-04-30T09:38:00.001Z</time></trkpt><trkpt lat="40.617305246863" lon="9.62826114846251"><ele>153.0</ele><time>2026-04-30T09:38:13.001Z</time></trkpt><trkpt lat="40.617353330826" lon="9.628379945030524"><ele>153.0</ele><time>2026-04-30T09:38:15.001Z</time></trkpt><trkpt lat="40.6173939571475" lon="9.628526032684459"><ele>153.0</ele><time>2026-04-30T09:38:17.001Z</time></trkpt><trkpt lat="40.617406751700614" lon="9.628637218397094"><ele>153.0</ele><time>2026-04-30T09:38:19.001Z</time></trkpt><trkpt lat="40.61742557908944" lon="9.62873822222967"><ele>153.0</ele><time>2026-04-30T09:38:21.001Z</time></trkpt><trkpt lat="40.61745814270134" lon="9.628826904991158"><ele>151.4</ele><time>2026-04-30T09:38:23.001Z</time></trkpt><trkpt lat="40.6174822557752" lon="9.62891164669484"><ele>149.8</ele><time>2026-04-30T09:38:25.001Z</time></trkpt><trkpt lat="40.617515685498354" lon="9.628994368327726"><ele>148.2</ele><time>2026-04-30T09:38:27.002Z</time></trkpt><trkpt lat="40.617578358954816" lon="9.629127117326938"><ele>146.6</ele><time>2026-04-30T09:38:29.002Z</time></trkpt><trkpt lat="40.6176388003028" lon="9.629234426730067"><ele>145.0</ele><time>2026-04-30T09:38:31.002Z</time></trkpt><trkpt lat="40.61770089601087" lon="9.629342350532644"><ele>145.0</ele><time>2026-04-30T09:38:33.002Z</time></trkpt><trkpt lat="40.61776830817557" lon="9.62946878201958"><ele>145.0</ele><time>2026-04-30T09:38:35.002Z</time></trkpt><trkpt lat="40.61783722712193" lon="9.629553203057256"><ele>145.0</ele><time>2026-04-30T09:38:37.002Z</time></trkpt><trkpt lat="40.61790802072497" lon="9.629671570935551"><ele>145.0</ele><time>2026-04-30T09:38:39.002Z</time></trkpt><trkpt lat="40.61795110351764" lon="9.62974327892358"><ele>145.0</ele><time>2026-04-30T09:38:40.002Z</time></trkpt><trkpt lat="40.618028008155655" lon="9.629823807643627"><ele>142.6</ele><time>2026-04-30T09:38:42.002Z</time></trkpt><trkpt lat="40.618083544094844" lon="9.629872793501836"><ele>140.2</ele><time>2026-04-30T09:38:43.002Z</time></trkpt><trkpt lat="40.6181654358458" lon="9.629950683544077"><ele>137.8</ele><time>2026-04-30T09:38:45.002Z</time></trkpt><trkpt lat="40.61825424313224" lon="9.630031116316196"><ele>135.4</ele><time>2026-04-30T09:38:47.002Z</time></trkpt><trkpt lat="40.618332895536675" lon="9.630112627390686"><ele>133.0</ele><time>2026-04-30T09:38:49.002Z</time></trkpt><trkpt lat="40.61839841637176" lon="9.630204105670042"><ele>133.0</ele><time>2026-04-30T09:38:51.002Z</time></trkpt><trkpt lat="40.61849119200637" lon="9.630231868539628"><ele>133.0</ele><time>2026-04-30T09:38:53.002Z</time></trkpt><trkpt lat="40.61857217740738" lon="9.630317225521694"><ele>133.0</ele><time>2026-04-30T09:38:55.002Z</time></trkpt><trkpt lat="40.618630743484964" lon="9.630449771190161"><ele>133.0</ele><time>2026-04-30T09:38:57.002Z</time></trkpt><trkpt lat="40.61870432894145" lon="9.630550755008777"><ele>133.0</ele><time>2026-04-30T09:38:59.002Z</time></trkpt><trkpt lat="40.61878643911504" lon="9.630665326088446"><ele>129.8</ele><time>2026-04-30T09:39:01.002Z</time></trkpt><trkpt lat="40.61887504771003" lon="9.630760642623613"><ele>126.60000000000001</ele><time>2026-04-30T09:39:03.002Z</time></trkpt><trkpt lat="40.618962873177175" lon="9.630856074871877"><ele>123.39999999999999</ele><time>2026-04-30T09:39:05.002Z</time></trkpt><trkpt lat="40.61902912540629" lon="9.63093091787154"><ele>120.19999999999999</ele><time>2026-04-30T09:39:06.002Z</time></trkpt><trkpt lat="40.619082845680424" lon="9.630990806384427"><ele>117.0</ele><time>2026-04-30T09:39:07.002Z</time></trkpt><trkpt lat="40.61914531506482" lon="9.631043922470141"><ele>117.0</ele><time>2026-04-30T09:39:08.002Z</time></trkpt><trkpt lat="40.619206046879945" lon="9.631096362913798"><ele>116.99999999999999</ele><time>2026-04-30T09:39:09.002Z</time></trkpt><trkpt lat="40.61926778327862" lon="9.631139282987116"><ele>116.99999999999999</ele><time>2026-04-30T09:39:10.002Z</time></trkpt><trkpt lat="40.619387481985406" lon="9.631225389197544"><ele>117.0</ele><time>2026-04-30T09:39:12.002Z</time></trkpt><trkpt lat="40.619447581903266" lon="9.631281317876288"><ele>117.0</ele><time>2026-04-30T09:39:13.002Z</time></trkpt><trkpt lat="40.61956142274011" lon="9.631360047180229"><ele>114.16666666666667</ele><time>2026-04-30T09:39:15.002Z</time></trkpt><trkpt lat="40.61962185460898" lon="9.631412731686321"><ele>111.33333333333334</ele><time>2026-04-30T09:39:16.002Z</time></trkpt><trkpt lat="40.61968527977334" lon="9.631454819540469"><ele>108.5</ele><time>2026-04-30T09:39:17.002Z</time></trkpt><trkpt lat="40.61975253411245" lon="9.631498453789323"><ele>105.66666666666667</ele><time>2026-04-30T09:39:18.002Z</time></trkpt><trkpt lat="40.6198445128015" lon="9.631546675177484"><ele>102.83333333333334</ele><time>2026-04-30T09:39:20.001Z</time></trkpt><trkpt lat="40.61996885856573" lon="9.631603568216603"><ele>100.0</ele><time>2026-04-30T09:39:22.001Z</time></trkpt><trkpt lat="40.62002804395547" lon="9.631633945523328"><ele>100.00000000000001</ele><time>2026-04-30T09:39:23.001Z</time></trkpt><trkpt lat="40.62008038449513" lon="9.631683482541565"><ele>100.0</ele><time>2026-04-30T09:39:24.001Z</time></trkpt><trkpt lat="40.62013507568979" lon="9.631765392175206"><ele>100.0</ele><time>2026-04-30T09:39:25.001Z</time></trkpt><trkpt lat="40.62017298804709" lon="9.631835235240793"><ele>100.0</ele><time>2026-04-30T09:39:26.001Z</time></trkpt><trkpt lat="40.62020441115381" lon="9.631908976223647"><ele>100.0</ele><time>2026-04-30T09:39:27.001Z</time></trkpt><trkpt lat="40.62028131796805" lon="9.632005979313114"><ele>100.00000000000001</ele><time>2026-04-30T09:39:29.001Z</time></trkpt><trkpt lat="40.62033494719287" lon="9.632051076582107"><ele>100.0</ele><time>2026-04-30T09:39:30.001Z</time></trkpt><trkpt lat="40.620400756348694" lon="9.632097374133041"><ele>96.50000000000001</ele><time>2026-04-30T09:39:31.001Z</time></trkpt><trkpt lat="40.62046599888638" lon="9.63213393851015"><ele>93.0</ele><time>2026-04-30T09:39:32.001Z</time></trkpt><trkpt lat="40.6205288173793" lon="9.632166476495206"><ele>89.5</ele><time>2026-04-30T09:39:33Z</time></trkpt><trkpt lat="40.620636547825995" lon="9.632218398721719"><ele>86.0</ele><time>2026-04-30T09:39:35.001Z</time></trkpt><trkpt lat="40.620749428296975" lon="9.632209776453456"><ele>82.5</ele><time>2026-04-30T09:39:37.001Z</time></trkpt><trkpt lat="40.62081254926603" lon="9.63217711598536"><ele>79.0</ele><time>2026-04-30T09:39:38.001Z</time></trkpt><trkpt lat="40.620879875327034" lon="9.632139575022624"><ele>79.0</ele><time>2026-04-30T09:39:39.001Z</time></trkpt><trkpt lat="40.62093152174311" lon="9.632079509371305"><ele>79.0</ele><time>2026-04-30T09:39:40.001Z</time></trkpt><trkpt lat="40.62098550554566" lon="9.632011326219354"><ele>79.0</ele><time>2026-04-30T09:39:41.001Z</time></trkpt><trkpt lat="40.62103817794254" lon="9.631930540772158"><ele>79.0</ele><time>2026-04-30T09:39:42.001Z</time></trkpt><trkpt lat="40.62109033326364" lon="9.631854593128015"><ele>79.0</ele><time>2026-04-30T09:39:43.001Z</time></trkpt><trkpt lat="40.62115628406098" lon="9.631795933909238"><ele>79.0</ele><time>2026-04-30T09:39:44.001Z</time></trkpt><trkpt lat="40.6212401709098" lon="9.631747335746311"><ele>79.6</ele><time>2026-04-30T09:39:45.001Z</time></trkpt><trkpt lat="40.62133815921772" lon="9.63171061437788"><ele>80.2</ele><time>2026-04-30T09:39:46.001Z</time></trkpt><trkpt lat="40.62143869168311" lon="9.631673982441674"><ele>80.8</ele><time>2026-04-30T09:39:47.001Z</time></trkpt><trkpt lat="40.62153974240596" lon="9.631621665634716"><ele>81.39999999999999</ele><time>2026-04-30T09:39:48.001Z</time></trkpt><trkpt lat="40.621622653117775" lon="9.63155399511767"><ele>82.0</ele><time>2026-04-30T09:39:49.001Z</time></trkpt><trkpt lat="40.62169991444855" lon="9.6314751626845"><ele>82.0</ele><time>2026-04-30T09:39:50.001Z</time></trkpt><trkpt lat="40.62176621597698" lon="9.631389971225813"><ele>82.0</ele><time>2026-04-30T09:39:51.001Z</time></trkpt><trkpt lat="40.621821075348194" lon="9.631282906055793"><ele>82.0</ele><time>2026-04-30T09:39:52.001Z</time></trkpt><trkpt lat="40.62187797414558" lon="9.631186957309193"><ele>82.0</ele><time>2026-04-30T09:39:53.001Z</time></trkpt><trkpt lat="40.62194580839857" lon="9.631131105227881"><ele>82.0</ele><time>2026-04-30T09:39:54.001Z</time></trkpt><trkpt lat="40.622021686734826" lon="9.631095319260613"><ele>82.0</ele><time>2026-04-30T09:39:55.001Z</time></trkpt><trkpt lat="40.62210983600423" lon="9.631070065343554"><ele>82.83333333333333</ele><time>2026-04-30T09:39:56.001Z</time></trkpt><trkpt lat="40.62218558788588" lon="9.631029496186493"><ele>83.66666666666666</ele><time>2026-04-30T09:39:57.001Z</time></trkpt><trkpt lat="40.62225210399266" lon="9.63098272098255"><ele>84.5</ele><time>2026-04-30T09:39:58.001Z</time></trkpt><trkpt lat="40.62231790810583" lon="9.630924689218785"><ele>85.33333333333333</ele><time>2026-04-30T09:40:02.001Z</time></trkpt><trkpt lat="40.622430725146096" lon="9.630853688156153"><ele>86.16666666666667</ele><time>2026-04-30T09:40:04.001Z</time></trkpt><trkpt lat="40.62250049323753" lon="9.630790561362618"><ele>87.0</ele><time>2026-04-30T09:40:05.001Z</time></trkpt><trkpt lat="40.62257237820308" lon="9.630731649998989"><ele>87.0</ele><time>2026-04-30T09:40:06.001Z</time></trkpt><trkpt lat="40.62264986757017" lon="9.630664302071969"><ele>87.0</ele><time>2026-04-30T09:40:07.001Z</time></trkpt><trkpt lat="40.622726361768805" lon="9.630605038535883"><ele>87.0</ele><time>2026-04-30T09:40:08.001Z</time></trkpt><trkpt lat="40.62280371393091" lon="9.630527886786533"><ele>87.0</ele><time>2026-04-30T09:40:09.001Z</time></trkpt><trkpt lat="40.62288074505275" lon="9.630450086704531"><ele>87.0</ele><time>2026-04-30T09:40:10.001Z</time></trkpt><trkpt lat="40.622981056338936" lon="9.630379805815489"><ele>87.5</ele><time>2026-04-30T09:40:11.001Z</time></trkpt><trkpt lat="40.62306276150388" lon="9.630325401769845"><ele>88.0</ele><time>2026-04-30T09:40:12.001Z</time></trkpt><trkpt lat="40.62313260902725" lon="9.630277914407161"><ele>88.5</ele><time>2026-04-30T09:40:13.001Z</time></trkpt><trkpt lat="40.62321883398789" lon="9.630166591985965"><ele>89.0</ele><time>2026-04-30T09:40:15.001Z</time></trkpt><trkpt lat="40.62324669953306" lon="9.630090019820392"><ele>89.5</ele><time>2026-04-30T09:40:16.001Z</time></trkpt><trkpt lat="40.62327401999716" lon="9.630010044835187"><ele>90.0</ele><time>2026-04-30T09:40:17.001Z</time></trkpt><trkpt lat="40.62328523330487" lon="9.629925743754715"><ele>90.0</ele><time>2026-04-30T09:40:18.001Z</time></trkpt><trkpt lat="40.623289051850726" lon="9.629825454516183"><ele>90.0</ele><time>2026-04-30T09:40:19.001Z</time></trkpt><trkpt lat="40.623292899237356" lon="9.629727555122477"><ele>90.0</ele><time>2026-04-30T09:40:20.001Z</time></trkpt><trkpt lat="40.62331722408647" lon="9.629630584942385"><ele>90.0</ele><time>2026-04-30T09:40:21.001Z</time></trkpt><trkpt lat="40.62335260840232" lon="9.629545212015257"><ele>90.0</ele><time>2026-04-30T09:40:22.001Z</time></trkpt><trkpt lat="40.62342300172278" lon="9.629428482657183"><ele>90.0</ele><time>2026-04-30T09:40:24.001Z</time></trkpt><trkpt lat="40.623529214515706" lon="9.629350544674033"><ele>92.0</ele><time>2026-04-30T09:40:26.001Z</time></trkpt><trkpt lat="40.623582248382014" lon="9.62930424675328"><ele>94.0</ele><time>2026-04-30T09:40:27.001Z</time></trkpt><trkpt lat="40.62362200703569" lon="9.629232735935439"><ele>96.0</ele><time>2026-04-30T09:40:28.001Z</time></trkpt><trkpt lat="40.62366220602686" lon="9.629155946137855"><ele>98.0</ele><time>2026-04-30T09:40:29.001Z</time></trkpt><trkpt lat="40.62368725708697" lon="9.629071837884323"><ele>100.0</ele><time>2026-04-30T09:40:30.001Z</time></trkpt><trkpt lat="40.62369738826962" lon="9.62896759803225"><ele>102.0</ele><time>2026-04-30T09:40:31.001Z</time></trkpt><trkpt lat="40.62370507029222" lon="9.62885412796218"><ele>104.0</ele><time>2026-04-30T09:40:32.001Z</time></trkpt><trkpt lat="40.623698781526194" lon="9.628738532602693"><ele>107.4</ele><time>2026-04-30T09:40:33.001Z</time></trkpt><trkpt lat="40.623684184283725" lon="9.628622560827717"><ele>110.80000000000001</ele><time>2026-04-30T09:40:34.001Z</time></trkpt><trkpt lat="40.62365444623088" lon="9.628492247078464"><ele>114.19999999999999</ele><time>2026-04-30T09:40:35.001Z</time></trkpt><trkpt lat="40.62364057524426" lon="9.628349764506426"><ele>117.6</ele><time>2026-04-30T09:40:36.001Z</time></trkpt><trkpt lat="40.623630598161185" lon="9.628207635927374"><ele>121.0</ele><time>2026-04-30T09:40:37.001Z</time></trkpt><trkpt lat="40.623613142075875" lon="9.628060733584329"><ele>121.00000000000001</ele><time>2026-04-30T09:40:38.001Z</time></trkpt><trkpt lat="40.623601881084056" lon="9.62794230689056"><ele>121.0</ele><time>2026-04-30T09:40:39.001Z</time></trkpt><trkpt lat="40.62359950678384" lon="9.627853907008946"><ele>121.0</ele><time>2026-04-30T09:40:40.001Z</time></trkpt><trkpt lat="40.62365792998559" lon="9.627717245221515"><ele>121.0</ele><time>2026-04-30T09:40:42.001Z</time></trkpt><trkpt lat="40.6237118997106" lon="9.627657999254707"><ele>121.00000000000001</ele><time>2026-04-30T09:40:43.001Z</time></trkpt><trkpt lat="40.623773315533626" lon="9.627592520363619"><ele>121.0</ele><time>2026-04-30T09:40:44.001Z</time></trkpt><trkpt lat="40.62382675757712" lon="9.627509495412435"><ele>117.6</ele><time>2026-04-30T09:40:45.001Z</time></trkpt><trkpt lat="40.623862946726504" lon="9.627423998343295"><ele>114.19999999999999</ele><time>2026-04-30T09:40:46.001Z</time></trkpt><trkpt lat="40.62388568937074" lon="9.627319424451501"><ele>110.80000000000001</ele><time>2026-04-30T09:40:47.001Z</time></trkpt><trkpt lat="40.62391468344361" lon="9.627209039770223"><ele>107.4</ele><time>2026-04-30T09:40:48.001Z</time></trkpt><trkpt lat="40.62394243603252" lon="9.627065924375973"><ele>104.0</ele><time>2026-04-30T09:40:49.001Z</time></trkpt><trkpt lat="40.62397598075707" lon="9.626928517502316"><ele>104.0</ele><time>2026-04-30T09:40:50.001Z</time></trkpt><trkpt lat="40.62400411623053" lon="9.626805770898214"><ele>104.0</ele><time>2026-04-30T09:40:51.001Z</time></trkpt><trkpt lat="40.624027606594936" lon="9.626688887723898"><ele>104.0</ele><time>2026-04-30T09:40:52.001Z</time></trkpt><trkpt lat="40.62404734057193" lon="9.626578590896873"><ele>104.0</ele><time>2026-04-30T09:40:53.001Z</time></trkpt><trkpt lat="40.62407504406599" lon="9.62648719896435"><ele>104.0</ele><time>2026-04-30T09:40:54.001Z</time></trkpt><trkpt lat="40.62409991101733" lon="9.626346088269912"><ele>103.99999999999999</ele><time>2026-04-30T09:40:56.002Z</time></trkpt><trkpt lat="40.62408657592601" lon="9.626210567303731"><ele>104.0</ele><time>2026-04-30T09:40:58.002Z</time></trkpt><trkpt lat="40.62407834389495" lon="9.626112180913657"><ele>104.0</ele><time>2026-04-30T09:40:59.002Z</time></trkpt><trkpt lat="40.624065011733585" lon="9.625997334805314"><ele>104.0</ele><time>2026-04-30T09:41:00.002Z</time></trkpt><trkpt lat="40.62404418773731" lon="9.62587873471929"><ele>103.99999999999999</ele><time>2026-04-30T09:41:01.002Z</time></trkpt><trkpt lat="40.62403164670416" lon="9.625775029599088"><ele>104.0</ele><time>2026-04-30T09:41:02.002Z</time></trkpt><trkpt lat="40.62401254782512" lon="9.625671064281242"><ele>103.80000000000001</ele><time>2026-04-30T09:41:03.002Z</time></trkpt><trkpt lat="40.6239830447442" lon="9.625517247024558"><ele>103.60000000000001</ele><time>2026-04-30T09:41:05.002Z</time></trkpt><trkpt lat="40.62396023217461" lon="9.62540758094772"><ele>103.4</ele><time>2026-04-30T09:41:06.002Z</time></trkpt><trkpt lat="40.62394500240484" lon="9.625286485892328"><ele>103.2</ele><time>2026-04-30T09:41:07.002Z</time></trkpt><trkpt lat="40.6239442182656" lon="9.625189328388505"><ele>103.0</ele><time>2026-04-30T09:41:08.002Z</time></trkpt><trkpt lat="40.62394382868942" lon="9.625087490023091"><ele>102.16666666666667</ele><time>2026-04-30T09:41:09.002Z</time></trkpt><trkpt lat="40.623936876108374" lon="9.624968275141045"><ele>101.33333333333334</ele><time>2026-04-30T09:41:10.002Z</time></trkpt><trkpt lat="40.62391736277194" lon="9.624855217147129"><ele>100.5</ele><time>2026-04-30T09:41:11.002Z</time></trkpt><trkpt lat="40.62391506510923" lon="9.624738111438932"><ele>99.66666666666666</ele><time>2026-04-30T09:41:12.002Z</time></trkpt><trkpt lat="40.62392259561355" lon="9.624644493706267"><ele>98.83333333333333</ele><time>2026-04-30T09:41:13.002Z</time></trkpt><trkpt lat="40.62391863971295" lon="9.624536459688802"><ele>98.0</ele><time>2026-04-30T09:41:14.002Z</time></trkpt><trkpt lat="40.62390509743966" lon="9.624428526271656"><ele>97.16666666666666</ele><time>2026-04-30T09:41:15.002Z</time></trkpt><trkpt lat="40.62389045983984" lon="9.624312397239024"><ele>96.33333333333333</ele><time>2026-04-30T09:41:16.002Z</time></trkpt><trkpt lat="40.62386764168865" lon="9.624209190050989"><ele>95.5</ele><time>2026-04-30T09:41:17.002Z</time></trkpt><trkpt lat="40.623854192439076" lon="9.624104889024185"><ele>94.66666666666666</ele><time>2026-04-30T09:41:18.002Z</time></trkpt><trkpt lat="40.6238414650418" lon="9.624010493428312"><ele>93.83333333333333</ele><time>2026-04-30T09:41:19.002Z</time></trkpt><trkpt lat="40.62383194798798" lon="9.623910279619736"><ele>93.0</ele><time>2026-04-30T09:41:20.002Z</time></trkpt><trkpt lat="40.623828041115324" lon="9.62380652270396"><ele>93.0</ele><time>2026-04-30T09:41:21.002Z</time></trkpt><trkpt lat="40.623812270366194" lon="9.623698412486103"><ele>93.0</ele><time>2026-04-30T09:41:22.002Z</time></trkpt><trkpt lat="40.62378554987746" lon="9.623589467186347"><ele>93.0</ele><time>2026-04-30T09:41:23.002Z</time></trkpt><trkpt lat="40.62374853754765" lon="9.62345918968783"><ele>93.0</ele><time>2026-04-30T09:41:24.002Z</time></trkpt><trkpt lat="40.62371995097442" lon="9.62333344272764"><ele>93.0</ele><time>2026-04-30T09:41:25.002Z</time></trkpt><trkpt lat="40.62368672165402" lon="9.623208311439592"><ele>93.0</ele><time>2026-04-30T09:41:26.001Z</time></trkpt><trkpt lat="40.623656960128514" lon="9.623092866914622"><ele>93.0</ele><time>2026-04-30T09:41:27.001Z</time></trkpt><trkpt lat="40.623627528204615" lon="9.622976224023958"><ele>93.0</ele><time>2026-04-30T09:41:28.001Z</time></trkpt><trkpt lat="40.62360510507779" lon="9.622859369365859"><ele>93.0</ele><time>2026-04-30T09:41:29.001Z</time></trkpt><trkpt lat="40.623583137604534" lon="9.622733506044538"><ele>93.0</ele><time>2026-04-30T09:41:30Z</time></trkpt><trkpt lat="40.62357118785803" lon="9.622604134598285"><ele>91.4</ele><time>2026-04-30T09:41:31Z</time></trkpt><trkpt lat="40.62355443296657" lon="9.622476826383192"><ele>89.80000000000001</ele><time>2026-04-30T09:41:32.001Z</time></trkpt><trkpt lat="40.623540981963124" lon="9.622353067630161"><ele>88.2</ele><time>2026-04-30T09:41:33.001Z</time></trkpt><trkpt lat="40.62352526400052" lon="9.622231854934503"><ele>86.6</ele><time>2026-04-30T09:41:34.001Z</time></trkpt><trkpt lat="40.62351437006022" lon="9.622115796628695"><ele>85.0</ele><time>2026-04-30T09:41:35.001Z</time></trkpt><trkpt lat="40.623509328636835" lon="9.621997342048578"><ele>84.16666666666666</ele><time>2026-04-30T09:41:36.001Z</time></trkpt><trkpt lat="40.62350375520746" lon="9.621879808257418"><ele>83.33333333333333</ele><time>2026-04-30T09:41:37.001Z</time></trkpt><trkpt lat="40.62350221973378" lon="9.621764071061898"><ele>82.5</ele><time>2026-04-30T09:41:38.001Z</time></trkpt><trkpt lat="40.623499844002865" lon="9.621655747717465"><ele>81.66666666666667</ele><time>2026-04-30T09:41:39Z</time></trkpt><trkpt lat="40.62350847628335" lon="9.621560394974837"><ele>80.83333333333334</ele><time>2026-04-30T09:41:40Z</time></trkpt><trkpt lat="40.62353024687086" lon="9.621474509859745"><ele>80.0</ele><time>2026-04-30T09:41:41Z</time></trkpt><trkpt lat="40.62359095600032" lon="9.621386783169234"><ele>80.0</ele><time>2026-04-30T09:41:43Z</time></trkpt><trkpt lat="40.623668138506154" lon="9.621394868509412"><ele>80.0</ele><time>2026-04-30T09:41:45Z</time></trkpt><trkpt lat="40.62377739093124" lon="9.621483018034372"><ele>80.0</ele><time>2026-04-30T09:41:47Z</time></trkpt><trkpt lat="40.623861073096094" lon="9.621525118213555"><ele>80.0</ele><time>2026-04-30T09:41:48Z</time></trkpt><trkpt lat="40.623956364580984" lon="9.621539212141402"><ele>80.0</ele><time>2026-04-30T09:41:49Z</time></trkpt><trkpt lat="40.624065626130715" lon="9.621528404500914"><ele>80.0</ele><time>2026-04-30T09:41:50Z</time></trkpt><trkpt lat="40.624174857118774" lon="9.621510032907397"><ele>80.0</ele><time>2026-04-30T09:41:51Z</time></trkpt><trkpt lat="40.62429060018428" lon="9.62146262490694"><ele>80.0</ele><time>2026-04-30T09:41:52Z</time></trkpt><trkpt lat="40.62439943221428" lon="9.62139325302575"><ele>80.0</ele><time>2026-04-30T09:41:53.001Z</time></trkpt><trkpt lat="40.624499429600284" lon="9.621299197453293"><ele>81.0</ele><time>2026-04-30T09:41:54.001Z</time></trkpt><trkpt lat="40.624587111880246" lon="9.621185382018668"><ele>82.0</ele><time>2026-04-30T09:41:55.001Z</time></trkpt><trkpt lat="40.624675899137834" lon="9.621055733811657"><ele>83.0</ele><time>2026-04-30T09:41:56.001Z</time></trkpt><trkpt lat="40.624771961446335" lon="9.6209236710008"><ele>84.0</ele><time>2026-04-30T09:41:57.001Z</time></trkpt><trkpt lat="40.62486729526794" lon="9.620788301774102"><ele>82.0</ele><time>2026-04-30T09:41:58.001Z</time></trkpt><trkpt lat="40.62495719277782" lon="9.62065832621791"><ele>80.0</ele><time>2026-04-30T09:41:59.001Z</time></trkpt><trkpt lat="40.625045394188454" lon="9.62053870628116"><ele>78.0</ele><time>2026-04-30T09:42:00.001Z</time></trkpt><trkpt lat="40.62514373591444" lon="9.620430438015669"><ele>76.0</ele><time>2026-04-30T09:42:01.001Z</time></trkpt><trkpt lat="40.625247691900064" lon="9.62034000324042"><ele>75.25</ele><time>2026-04-30T09:42:02.001Z</time></trkpt><trkpt lat="40.62535919469592" lon="9.620290016037274"><ele>74.5</ele><time>2026-04-30T09:42:03.001Z</time></trkpt><trkpt lat="40.6254810987221" lon="9.620262034564961"><ele>73.75</ele><time>2026-04-30T09:42:04.001Z</time></trkpt><trkpt lat="40.62560467267484" lon="9.62026408427829"><ele>73.0</ele><time>2026-04-30T09:42:05.001Z</time></trkpt><trkpt lat="40.625728628798896" lon="9.620286817455366"><ele>73.75</ele><time>2026-04-30T09:42:06.001Z</time></trkpt><trkpt lat="40.62585383496286" lon="9.620321606980397"><ele>74.5</ele><time>2026-04-30T09:42:07.001Z</time></trkpt><trkpt lat="40.62597564542316" lon="9.620321279359342"><ele>75.25</ele><time>2026-04-30T09:42:08.001Z</time></trkpt><trkpt lat="40.62611008113218" lon="9.620358569069346"><ele>76.0</ele><time>2026-04-30T09:42:09.001Z</time></trkpt><trkpt lat="40.626249337082065" lon="9.620395195278203"><ele>76.0</ele><time>2026-04-30T09:42:10.001Z</time></trkpt><trkpt lat="40.62638965282691" lon="9.620434350644782"><ele>76.0</ele><time>2026-04-30T09:42:11.001Z</time></trkpt><trkpt lat="40.626526939268594" lon="9.620476652776167"><ele>76.0</ele><time>2026-04-30T09:42:12.001Z</time></trkpt><trkpt lat="40.62666303269564" lon="9.620514723690286"><ele>76.0</ele><time>2026-04-30T09:42:13.001Z</time></trkpt><trkpt lat="40.62679772443548" lon="9.620553455489064"><ele>76.0</ele><time>2026-04-30T09:42:14.001Z</time></trkpt><trkpt lat="40.62692611480786" lon="9.620605088379538"><ele>76.0</ele><time>2026-04-30T09:42:15.001Z</time></trkpt><trkpt lat="40.62704597082907" lon="9.620679021935176"><ele>76.0</ele><time>2026-04-30T09:42:16.001Z</time></trkpt><trkpt lat="40.627153546076464" lon="9.620774335029708"><ele>76.0</ele><time>2026-04-30T09:42:17.001Z</time></trkpt><trkpt lat="40.62725727795854" lon="9.620884724743236"><ele>75.5</ele><time>2026-04-30T09:42:18.001Z</time></trkpt><trkpt lat="40.627361597638746" lon="9.621001633435531"><ele>75.0</ele><time>2026-04-30T09:42:19.001Z</time></trkpt><trkpt lat="40.62746389546006" lon="9.621123334700895"><ele>74.5</ele><time>2026-04-30T09:42:20.001Z</time></trkpt><trkpt lat="40.627563982834026" lon="9.621251316097906"><ele>74.0</ele><time>2026-04-30T09:42:21.001Z</time></trkpt><trkpt lat="40.62765777886711" lon="9.621379433546254"><ele>75.4</ele><time>2026-04-30T09:42:22.001Z</time></trkpt><trkpt lat="40.62773571556001" lon="9.621495695974918"><ele>76.80000000000001</ele><time>2026-04-30T09:42:23.001Z</time></trkpt><trkpt lat="40.62779920434188" lon="9.621597993443444"><ele>78.19999999999999</ele><time>2026-04-30T09:42:24.001Z</time></trkpt><trkpt lat="40.62784046240105" lon="9.62170227197064"><ele>79.6</ele><time>2026-04-30T09:42:25.001Z</time></trkpt><trkpt lat="40.627869880809754" lon="9.621808121563294"><ele>81.0</ele><time>2026-04-30T09:42:26.001Z</time></trkpt><trkpt lat="40.627883843082735" lon="9.621915690909724"><ele>83.19999999999999</ele><time>2026-04-30T09:42:27.001Z</time></trkpt><trkpt lat="40.62790291394622" lon="9.622012563857165"><ele>85.39999999999999</ele><time>2026-04-30T09:42:28.001Z</time></trkpt><trkpt lat="40.62796094117837" lon="9.6221160199799"><ele>87.6</ele><time>2026-04-30T09:42:30.001Z</time></trkpt><trkpt lat="40.62804396604453" lon="9.622038747930162"><ele>89.8</ele><time>2026-04-30T09:42:33.001Z</time></trkpt><trkpt lat="40.6280878826911" lon="9.62190751225871"><ele>92.0</ele><time>2026-04-30T09:42:35.001Z</time></trkpt><trkpt lat="40.62809851586736" lon="9.621806179587908"><ele>92.0</ele><time>2026-04-30T09:42:36.001Z</time></trkpt><trkpt lat="40.6280964787437" lon="9.621699525440295"><ele>92.0</ele><time>2026-04-30T09:42:37.001Z</time></trkpt><trkpt lat="40.628088582629694" lon="9.621587429337504"><ele>92.0</ele><time>2026-04-30T09:42:38.001Z</time></trkpt><trkpt lat="40.62807169138504" lon="9.621458673316905"><ele>92.0</ele><time>2026-04-30T09:42:40.001Z</time></trkpt><trkpt lat="40.627995413391346" lon="9.621487156520125"><ele>92.0</ele><time>2026-04-30T09:42:48.001Z</time></trkpt><trkpt lat="40.627913024120794" lon="9.621587234325116"><ele>92.0</ele><time>2026-04-30T09:42:50.001Z</time></trkpt><trkpt lat="40.627842215228924" lon="9.621700767763983"><ele>92.0</ele><time>2026-04-30T09:42:52.001Z</time></trkpt><trkpt lat="40.627829001724784" lon="9.621826615731493"><ele>92.0</ele><time>2026-04-30T09:42:54.001Z</time></trkpt><trkpt lat="40.62783438699742" lon="9.62193489905523"><ele>92.0</ele><time>2026-04-30T09:42:55.001Z</time></trkpt><trkpt lat="40.62785431921559" lon="9.622051452174805"><ele>92.0</ele><time>2026-04-30T09:42:56.001Z</time></trkpt><trkpt lat="40.62787572974913" lon="9.62217102444684"><ele>92.39999999999999</ele><time>2026-04-30T09:42:57.001Z</time></trkpt><trkpt lat="40.627897946168595" lon="9.6223003966072"><ele>92.8</ele><time>2026-04-30T09:42:58.001Z</time></trkpt><trkpt lat="40.627931364567885" lon="9.622421709422403"><ele>93.2</ele><time>2026-04-30T09:42:59.001Z</time></trkpt><trkpt lat="40.62793790984353" lon="9.622519697855735"><ele>93.6</ele><time>2026-04-30T09:43:00.001Z</time></trkpt><trkpt lat="40.62796577910023" lon="9.622623027462748"><ele>94.0</ele><time>2026-04-30T09:43:02.001Z</time></trkpt><trkpt lat="40.62812454142118" lon="9.622600952039155"><ele>94.0</ele><time>2026-04-30T09:43:05.001Z</time></trkpt><trkpt lat="40.628186231470934" lon="9.62253852078986"><ele>94.0</ele><time>2026-04-30T09:43:07.001Z</time></trkpt><trkpt lat="40.628216432933364" lon="9.622458692437409"><ele>94.0</ele><time>2026-04-30T09:43:08.001Z</time></trkpt><trkpt lat="40.62822351517455" lon="9.622365905239906"><ele>94.0</ele><time>2026-04-30T09:43:09.001Z</time></trkpt><trkpt lat="40.6282269967881" lon="9.622271035679377"><ele>94.0</ele><time>2026-04-30T09:43:10.001Z</time></trkpt><trkpt lat="40.62823600749918" lon="9.622188749576535"><ele>94.0</ele><time>2026-04-30T09:43:11.001Z</time></trkpt><trkpt lat="40.62828214315894" lon="9.622038501170655"><ele>93.6</ele><time>2026-04-30T09:43:13.002Z</time></trkpt><trkpt lat="40.628309825311874" lon="9.62195767197458"><ele>93.2</ele><time>2026-04-30T09:43:14.002Z</time></trkpt><trkpt lat="40.62833017793689" lon="9.621865960599392"><ele>92.8</ele><time>2026-04-30T09:43:15.002Z</time></trkpt><trkpt lat="40.62837953558229" lon="9.621721084679757"><ele>92.39999999999999</ele><time>2026-04-30T09:43:17.002Z</time></trkpt><trkpt lat="40.628458924850044" lon="9.62157909365099"><ele>92.0</ele><time>2026-04-30T09:43:19.002Z</time></trkpt><trkpt lat="40.62853920168351" lon="9.621434172240587"><ele>92.0</ele><time>2026-04-30T09:43:21.002Z</time></trkpt><trkpt lat="40.62856757397817" lon="9.621359552546918"><ele>92.0</ele><time>2026-04-30T09:43:22.002Z</time></trkpt><trkpt lat="40.62861007107478" lon="9.621285355625433"><ele>92.0</ele><time>2026-04-30T09:43:24.002Z</time></trkpt><trkpt lat="40.62866452239998" lon="9.621396446661572"><ele>92.0</ele><time>2026-04-30T09:43:27.002Z</time></trkpt><trkpt lat="40.628624194551996" lon="9.621555057301261"><ele>92.0</ele><time>2026-04-30T09:43:29.002Z</time></trkpt><trkpt lat="40.628603486428325" lon="9.62163806899307"><ele>92.0</ele><time>2026-04-30T09:43:30.002Z</time></trkpt><trkpt lat="40.62859432669411" lon="9.621729864286719"><ele>92.0</ele><time>2026-04-30T09:43:31.002Z</time></trkpt><trkpt lat="40.62859519998743" lon="9.621816068359804"><ele>92.0</ele><time>2026-04-30T09:43:32.001Z</time></trkpt><trkpt lat="40.62861207259034" lon="9.621903042737246"><ele>92.0</ele><time>2026-04-30T09:43:33Z</time></trkpt><trkpt lat="40.62863767085324" lon="9.621993786167874"><ele>92.0</ele><time>2026-04-30T09:43:34Z</time></trkpt><trkpt lat="40.628664079081936" lon="9.622093384557454"><ele>92.0</ele><time>2026-04-30T09:43:35.001Z</time></trkpt><trkpt lat="40.6286862275277" lon="9.622191851212515"><ele>92.0</ele><time>2026-04-30T09:43:36Z</time></trkpt><trkpt lat="40.62871169891535" lon="9.622286847902476"><ele>92.0</ele><time>2026-04-30T09:43:37Z</time></trkpt><trkpt lat="40.62874579260739" lon="9.622365954497091"><ele>97.83333333333334</ele><time>2026-04-30T09:43:38.001Z</time></trkpt><trkpt lat="40.62878545495847" lon="9.622444375606252"><ele>103.66666666666667</ele><time>2026-04-30T09:43:39.001Z</time></trkpt><trkpt lat="40.62882683624254" lon="9.62250749659874"><ele>109.5</ele><time>2026-04-30T09:43:40.001Z</time></trkpt><trkpt lat="40.6288823543688" lon="9.622649001473494"><ele>115.33333333333334</ele><time>2026-04-30T09:43:42.001Z</time></trkpt><trkpt lat="40.62888991903419" lon="9.622731957130453"><ele>121.16666666666667</ele><time>2026-04-30T09:43:43.001Z</time></trkpt><trkpt lat="40.62888205169939" lon="9.622816149616352"><ele>127.0</ele><time>2026-04-30T09:43:44.001Z</time></trkpt><trkpt lat="40.628867543123334" lon="9.622914148996959"><ele>128.0</ele><time>2026-04-30T09:43:45.001Z</time></trkpt><trkpt lat="40.62884433616283" lon="9.62299929601322"><ele>129.0</ele><time>2026-04-30T09:43:46.001Z</time></trkpt><trkpt lat="40.62881489605114" lon="9.623081439790507"><ele>130.0</ele><time>2026-04-30T09:43:47.001Z</time></trkpt><trkpt lat="40.62880188659348" lon="9.623214650515852"><ele>131.0</ele><time>2026-04-30T09:43:49.001Z</time></trkpt><trkpt lat="40.628847286248046" lon="9.623367473295882"><ele>132.0</ele><time>2026-04-30T09:43:51.001Z</time></trkpt><trkpt lat="40.62886900095761" lon="9.623452751701514"><ele>133.0</ele><time>2026-04-30T09:43:52.001Z</time></trkpt><trkpt lat="40.62888613058184" lon="9.62354090058816"><ele>131.16666666666669</ele><time>2026-04-30T09:43:53.001Z</time></trkpt><trkpt lat="40.628887964941335" lon="9.623686243928448"><ele>129.33333333333334</ele><time>2026-04-30T09:43:55.001Z</time></trkpt><trkpt lat="40.628944492795746" lon="9.6238010375246"><ele>127.5</ele><time>2026-04-30T09:43:57.001Z</time></trkpt><trkpt lat="40.62899970846093" lon="9.623866440401045"><ele>125.66666666666666</ele><time>2026-04-30T09:43:58.001Z</time></trkpt><trkpt lat="40.629056293839085" lon="9.623928414918398"><ele>123.83333333333333</ele><time>2026-04-30T09:43:59.001Z</time></trkpt><trkpt lat="40.62911190400797" lon="9.623999448020635"><ele>122.0</ele><time>2026-04-30T09:44:00.001Z</time></trkpt><trkpt lat="40.629166351195884" lon="9.624057010274331"><ele>121.99999999999999</ele><time>2026-04-30T09:44:01.001Z</time></trkpt><trkpt lat="40.62928185410665" lon="9.62412348860862"><ele>122.0</ele><time>2026-04-30T09:44:03.001Z</time></trkpt><trkpt lat="40.629341810242494" lon="9.624155896789803"><ele>122.0</ele><time>2026-04-30T09:44:04.001Z</time></trkpt><trkpt lat="40.62938879382736" lon="9.624215311765305"><ele>122.0</ele><time>2026-04-30T09:44:05.001Z</time></trkpt><trkpt lat="40.62942809243179" lon="9.62428469844082"><ele>121.99999999999999</ele><time>2026-04-30T09:44:06.001Z</time></trkpt><trkpt lat="40.62946878942864" lon="9.624369177674382"><ele>122.0</ele><time>2026-04-30T09:44:07.001Z</time></trkpt><trkpt lat="40.62951304525717" lon="9.624457842173362"><ele>124.49999999999999</ele><time>2026-04-30T09:44:08.001Z</time></trkpt><trkpt lat="40.62955508550178" lon="9.624540653683265"><ele>127.0</ele><time>2026-04-30T09:44:09.001Z</time></trkpt><trkpt lat="40.6296138924388" lon="9.624625337481707"><ele>129.5</ele><time>2026-04-30T09:44:10.001Z</time></trkpt><trkpt lat="40.62966850540667" lon="9.624700521324662"><ele>132.0</ele><time>2026-04-30T09:44:11.001Z</time></trkpt><trkpt lat="40.62972532662153" lon="9.624783989990327"><ele>134.5</ele><time>2026-04-30T09:44:12.001Z</time></trkpt><trkpt lat="40.62977271225542" lon="9.624876959052385"><ele>137.0</ele><time>2026-04-30T09:44:13.001Z</time></trkpt><trkpt lat="40.62981926126094" lon="9.624981476922892"><ele>137.0</ele><time>2026-04-30T09:44:14.001Z</time></trkpt><trkpt lat="40.62986719130873" lon="9.625098313013535"><ele>137.0</ele><time>2026-04-30T09:44:15.001Z</time></trkpt><trkpt lat="40.62990970489687" lon="9.625208046784993"><ele>137.0</ele><time>2026-04-30T09:44:16.001Z</time></trkpt><trkpt lat="40.62994636213168" lon="9.625312468438645"><ele>137.0</ele><time>2026-04-30T09:44:17.001Z</time></trkpt><trkpt lat="40.62997282287996" lon="9.625428679135556"><ele>137.0</ele><time>2026-04-30T09:44:18.001Z</time></trkpt><trkpt lat="40.629987903382464" lon="9.625541704698584"><ele>135.33333333333331</ele><time>2026-04-30T09:44:19.001Z</time></trkpt><trkpt lat="40.63001163056887" lon="9.625657300044555"><ele>133.66666666666666</ele><time>2026-04-30T09:44:20.001Z</time></trkpt><trkpt lat="40.630046015286354" lon="9.625775198042943"><ele>132.0</ele><time>2026-04-30T09:44:21.001Z</time></trkpt><trkpt lat="40.63009379428376" lon="9.625873690778555"><ele>130.33333333333334</ele><time>2026-04-30T09:44:22.001Z</time></trkpt><trkpt lat="40.6301254750453" lon="9.625982125398119"><ele>128.66666666666669</ele><time>2026-04-30T09:44:23.001Z</time></trkpt><trkpt lat="40.63014704338116" lon="9.626064949591004"><ele>127.0</ele><time>2026-04-30T09:44:24.001Z</time></trkpt><trkpt lat="40.630180813142424" lon="9.626242551012622"><ele>127.8</ele><time>2026-04-30T09:44:26.001Z</time></trkpt><trkpt lat="40.630206370718014" lon="9.626360569965737"><ele>128.6</ele><time>2026-04-30T09:44:27.001Z</time></trkpt><trkpt lat="40.630236006205635" lon="9.62648019263772"><ele>129.39999999999998</ele><time>2026-04-30T09:44:28.001Z</time></trkpt><trkpt lat="40.63025808350504" lon="9.62659941474884"><ele>130.2</ele><time>2026-04-30T09:44:29.001Z</time></trkpt><trkpt lat="40.630284472195974" lon="9.626706062160853"><ele>131.0</ele><time>2026-04-30T09:44:30.001Z</time></trkpt><trkpt lat="40.630310120649696" lon="9.626814214604089"><ele>131.0</ele><time>2026-04-30T09:44:31.001Z</time></trkpt><trkpt lat="40.630340518423054" lon="9.626918063814806"><ele>131.0</ele><time>2026-04-30T09:44:32.001Z</time></trkpt><trkpt lat="40.6303788615013" lon="9.62702493995682"><ele>131.0</ele><time>2026-04-30T09:44:33.001Z</time></trkpt><trkpt lat="40.630417476745805" lon="9.62713814355077"><ele>131.0</ele><time>2026-04-30T09:44:34.001Z</time></trkpt><trkpt lat="40.63046227885967" lon="9.627250055672343"><ele>131.0</ele><time>2026-04-30T09:44:35.001Z</time></trkpt><trkpt lat="40.63051720828884" lon="9.627359947852533"><ele>130.0</ele><time>2026-04-30T09:44:36.001Z</time></trkpt><trkpt lat="40.63056701652209" lon="9.627464446484716"><ele>129.0</ele><time>2026-04-30T09:44:37.001Z</time></trkpt><trkpt lat="40.630614921801346" lon="9.627560050361504"><ele>128.0</ele><time>2026-04-30T09:44:38.001Z</time></trkpt><trkpt lat="40.63066081359643" lon="9.627666950338059"><ele>127.0</ele><time>2026-04-30T09:44:39.001Z</time></trkpt><trkpt lat="40.630701980775" lon="9.627769323823633"><ele>125.99999999999999</ele><time>2026-04-30T09:44:40.001Z</time></trkpt><trkpt lat="40.63074520702915" lon="9.627868947288315"><ele>125.0</ele><time>2026-04-30T09:44:41.001Z</time></trkpt><trkpt lat="40.63078694672336" lon="9.627953246606838"><ele>123.49999999999999</ele><time>2026-04-30T09:44:42.001Z</time></trkpt><trkpt lat="40.63083610279489" lon="9.628041880719781"><ele>122.0</ele><time>2026-04-30T09:44:43.001Z</time></trkpt><trkpt lat="40.630886864830416" lon="9.628132563125343"><ele>120.5</ele><time>2026-04-30T09:44:44.001Z</time></trkpt><trkpt lat="40.630938036334186" lon="9.628228116397052"><ele>119.0</ele><time>2026-04-30T09:44:45.001Z</time></trkpt><trkpt lat="40.63098885364498" lon="9.628324396080323"><ele>117.49999999999999</ele><time>2026-04-30T09:44:46.001Z</time></trkpt><trkpt lat="40.63104223948516" lon="9.628428220223253"><ele>116.0</ele><time>2026-04-30T09:44:47.001Z</time></trkpt><trkpt lat="40.63109372945937" lon="9.628523162658976"><ele>116.49999999999999</ele><time>2026-04-30T09:44:48.001Z</time></trkpt><trkpt lat="40.63114300261185" lon="9.628619870843776"><ele>117.0</ele><time>2026-04-30T09:44:49.001Z</time></trkpt><trkpt lat="40.63119452070752" lon="9.628706610185512"><ele>117.5</ele><time>2026-04-30T09:44:50.001Z</time></trkpt><trkpt lat="40.631257667313726" lon="9.628776718420726"><ele>118.0</ele><time>2026-04-30T09:44:51.001Z</time></trkpt><trkpt lat="40.63130439143528" lon="9.628837904707387"><ele>118.49999999999999</ele><time>2026-04-30T09:44:52.001Z</time></trkpt><trkpt lat="40.63133755612051" lon="9.628960177227755"><ele>119.0</ele><time>2026-04-30T09:44:54.001Z</time></trkpt><trkpt lat="40.63133503759069" lon="9.629108935754285"><ele>119.0</ele><time>2026-04-30T09:44:56.002Z</time></trkpt><trkpt lat="40.631388310799764" lon="9.629190670253447"><ele>119.0</ele><time>2026-04-30T09:44:58.002Z</time></trkpt><trkpt lat="40.63150884196192" lon="9.629238526951585"><ele>119.0</ele><time>2026-04-30T09:45:00.002Z</time></trkpt><trkpt lat="40.63157422844932" lon="9.629309717709434"><ele>119.0</ele><time>2026-04-30T09:45:01.002Z</time></trkpt><trkpt lat="40.63164986136509" lon="9.629401284828605"><ele>119.0</ele><time>2026-04-30T09:45:02.002Z</time></trkpt><trkpt lat="40.631718103336624" lon="9.62949960772236"><ele>118.2</ele><time>2026-04-30T09:45:03.002Z</time></trkpt><trkpt lat="40.63178364314933" lon="9.629600928355035"><ele>117.4</ele><time>2026-04-30T09:45:04.002Z</time></trkpt><trkpt lat="40.6318525135724" lon="9.629711325351684"><ele>116.6</ele><time>2026-04-30T09:45:05.002Z</time></trkpt><trkpt lat="40.63191074104523" lon="9.629818108520562"><ele>115.8</ele><time>2026-04-30T09:45:06.002Z</time></trkpt><trkpt lat="40.63195632650078" lon="9.629926576040159"><ele>115.0</ele><time>2026-04-30T09:45:07.002Z</time></trkpt><trkpt lat="40.63198049763559" lon="9.630025606315192"><ele>117.0</ele><time>2026-04-30T09:45:08.002Z</time></trkpt><trkpt lat="40.631994634737424" lon="9.630144502548603"><ele>119.0</ele><time>2026-04-30T09:45:09.002Z</time></trkpt><trkpt lat="40.63200000359181" lon="9.630255041074523"><ele>121.0</ele><time>2026-04-30T09:45:10.002Z</time></trkpt><trkpt lat="40.63199874941857" lon="9.630374818771294"><ele>123.0</ele><time>2026-04-30T09:45:11.002Z</time></trkpt><trkpt lat="40.632006940457835" lon="9.630499969383655"><ele>125.0</ele><time>2026-04-30T09:45:12.002Z</time></trkpt><trkpt lat="40.63202739089283" lon="9.63062327963051"><ele>125.99999999999999</ele><time>2026-04-30T09:45:13.002Z</time></trkpt><trkpt lat="40.63206034437776" lon="9.63073400701817"><ele>127.0</ele><time>2026-04-30T09:45:14.002Z</time></trkpt><trkpt lat="40.63210183022176" lon="9.63081953031711"><ele>128.0</ele><time>2026-04-30T09:45:15.002Z</time></trkpt><trkpt lat="40.63216042033769" lon="9.630897991663709"><ele>129.0</ele><time>2026-04-30T09:45:16.002Z</time></trkpt><trkpt lat="40.63223310187122" lon="9.630952655930404"><ele>130.0</ele><time>2026-04-30T09:45:17.002Z</time></trkpt><trkpt lat="40.632304968323595" lon="9.630978247130242"><ele>131.0</ele><time>2026-04-30T09:45:18.002Z</time></trkpt><trkpt lat="40.63242967192041" lon="9.630966899255565"><ele>131.0</ele><time>2026-04-30T09:45:20.002Z</time></trkpt><trkpt lat="40.63254046337877" lon="9.63091585978887"><ele>131.0</ele><time>2026-04-30T09:45:22.002Z</time></trkpt><trkpt lat="40.63260901884602" lon="9.630872565692174"><ele>131.0</ele><time>2026-04-30T09:45:23.002Z</time></trkpt><trkpt lat="40.63267529125715" lon="9.630814872257512"><ele>131.0</ele><time>2026-04-30T09:45:24.002Z</time></trkpt><trkpt lat="40.63274564240331" lon="9.630749621332969"><ele>131.0</ele><time>2026-04-30T09:45:25.002Z</time></trkpt><trkpt lat="40.63281439664704" lon="9.630707000808298"><ele>131.0</ele><time>2026-04-30T09:45:26.002Z</time></trkpt><trkpt lat="40.632879227350514" lon="9.630685295676901"><ele>132.8</ele><time>2026-04-30T09:45:27.002Z</time></trkpt><trkpt lat="40.63297794548952" lon="9.63072348426097"><ele>134.6</ele><time>2026-04-30T09:45:29.002Z</time></trkpt><trkpt lat="40.633025354157894" lon="9.63077858684519"><ele>136.4</ele><time>2026-04-30T09:45:30.002Z</time></trkpt><trkpt lat="40.633067652480555" lon="9.630854039245005"><ele>138.2</ele><time>2026-04-30T09:45:31.002Z</time></trkpt><trkpt lat="40.633170943355395" lon="9.63093252245243"><ele>140.0</ele><time>2026-04-30T09:45:33.002Z</time></trkpt><trkpt lat="40.6332954724097" lon="9.63091871893503"><ele>140.0</ele><time>2026-04-30T09:45:35.002Z</time></trkpt><trkpt lat="40.633362806262014" lon="9.630901527803589"><ele>140.0</ele><time>2026-04-30T09:45:36.002Z</time></trkpt><trkpt lat="40.63344193855847" lon="9.63093936283662"><ele>140.0</ele><time>2026-04-30T09:45:38Z</time></trkpt><trkpt lat="40.633435132854984" lon="9.631076641398382"><ele>140.0</ele><time>2026-04-30T09:45:41Z</time></trkpt><trkpt lat="40.63343034027471" lon="9.63122077817973"><ele>140.0</ele><time>2026-04-30T09:45:43Z</time></trkpt><trkpt lat="40.633438670936485" lon="9.631391997211594"><ele>140.66666666666666</ele><time>2026-04-30T09:45:45Z</time></trkpt><trkpt lat="40.63345487324369" lon="9.631489294989816"><ele>141.33333333333331</ele><time>2026-04-30T09:45:46Z</time></trkpt><trkpt lat="40.63347704139732" lon="9.631583403128007"><ele>142.0</ele><time>2026-04-30T09:45:47Z</time></trkpt><trkpt lat="40.633512953446164" lon="9.631674819601296"><ele>142.66666666666666</ele><time>2026-04-30T09:45:48Z</time></trkpt><trkpt lat="40.63354833927188" lon="9.63176481618821"><ele>143.33333333333334</ele><time>2026-04-30T09:45:49Z</time></trkpt><trkpt lat="40.633574360809526" lon="9.631861532185512"><ele>144.0</ele><time>2026-04-30T09:45:50Z</time></trkpt><trkpt lat="40.633598941869195" lon="9.631962224285218"><ele>144.16666666666666</ele><time>2026-04-30T09:45:51Z</time></trkpt><trkpt lat="40.63363003378347" lon="9.632060567067285"><ele>144.33333333333334</ele><time>2026-04-30T09:45:52Z</time></trkpt><trkpt lat="40.63365433474158" lon="9.632154159911064"><ele>144.5</ele><time>2026-04-30T09:45:53Z</time></trkpt><trkpt lat="40.63368013521172" lon="9.63224273605512"><ele>144.66666666666669</ele><time>2026-04-30T09:45:54Z</time></trkpt><trkpt lat="40.6337038627017" lon="9.63232787933762"><ele>144.83333333333334</ele><time>2026-04-30T09:45:55Z</time></trkpt><trkpt lat="40.63371269216133" lon="9.632499600368309"><ele>145.0</ele><time>2026-04-30T09:45:57Z</time></trkpt><trkpt lat="40.633717654607054" lon="9.632669129786542"><ele>149.83333333333334</ele><time>2026-04-30T09:45:59Z</time></trkpt><trkpt lat="40.63373574199271" lon="9.632763307380626"><ele>154.66666666666669</ele><time>2026-04-30T09:46:01Z</time></trkpt><trkpt lat="40.6337843599937" lon="9.632836634420352"><ele>159.5</ele><time>2026-04-30T09:46:04Z</time></trkpt><trkpt lat="40.63380083221234" lon="9.632965825232061"><ele>164.33333333333334</ele><time>2026-04-30T09:46:06Z</time></trkpt><trkpt lat="40.63382189256784" lon="9.633065108594257"><ele>169.16666666666666</ele><time>2026-04-30T09:46:07Z</time></trkpt><trkpt lat="40.63384861919579" lon="9.633205773144622"><ele>174.0</ele><time>2026-04-30T09:46:08Z</time></trkpt><trkpt lat="40.633866033216485" lon="9.633474290919741"><ele>173.79999999999998</ele><time>2026-04-30T09:46:09Z</time></trkpt><trkpt lat="40.63386679384135" lon="9.633619189480548"><ele>173.6</ele><time>2026-04-30T09:46:10Z</time></trkpt><trkpt lat="40.633899250628986" lon="9.633720296933806"><ele>173.4</ele><time>2026-04-30T09:46:11Z</time></trkpt><trkpt lat="40.63393694067054" lon="9.633794560063912"><ele>173.2</ele><time>2026-04-30T09:46:12Z</time></trkpt><trkpt lat="40.634002340086084" lon="9.633895295593156"><ele>173.0</ele><time>2026-04-30T09:46:14Z</time></trkpt><trkpt lat="40.63404929301739" lon="9.634010753895287"><ele>173.0</ele><time>2026-04-30T09:46:16Z</time></trkpt><trkpt lat="40.63412894084058" lon="9.63416825666092"><ele>173.0</ele><time>2026-04-30T09:46:18Z</time></trkpt><trkpt lat="40.63419046189675" lon="9.634276363077923"><ele>173.0</ele><time>2026-04-30T09:46:20Z</time></trkpt><trkpt lat="40.6342501537857" lon="9.634345260565894"><ele>173.0</ele><time>2026-04-30T09:46:22Z</time></trkpt><trkpt lat="40.634298522992" lon="9.63442598792249"><ele>173.0</ele><time>2026-04-30T09:46:25Z</time></trkpt><trkpt lat="40.63433147280915" lon="9.634503489592959"><ele>169.0</ele><time>2026-04-30T09:46:28.001Z</time></trkpt><trkpt lat="40.63436775540403" lon="9.634615955578445"><ele>165.0</ele><time>2026-04-30T09:46:32.001Z</time></trkpt><trkpt lat="40.63439811931693" lon="9.634729888173712"><ele>161.0</ele><time>2026-04-30T09:46:35.001Z</time></trkpt><trkpt lat="40.63440365055909" lon="9.634829983693724"><ele>157.0</ele><time>2026-04-30T09:46:38.001Z</time></trkpt><trkpt lat="40.63438700028676" lon="9.634936408630423"><ele>153.0</ele><time>2026-04-30T09:46:42.001Z</time></trkpt><trkpt lat="40.634382563810696" lon="9.635025139907604"><ele>149.0</ele><time>2026-04-30T09:46:46.001Z</time></trkpt><trkpt lat="40.63438688440646" lon="9.635121490517406"><ele>149.0</ele><time>2026-04-30T09:46:49.001Z</time></trkpt><trkpt lat="40.63440626892921" lon="9.635208730814691"><ele>149.0</ele><time>2026-04-30T09:46:52.001Z</time></trkpt><trkpt lat="40.63442320512009" lon="9.635297875149433"><ele>149.0</ele><time>2026-04-30T09:46:55.001Z</time></trkpt><trkpt lat="40.63442971567186" lon="9.635398694147034"><ele>149.0</ele><time>2026-04-30T09:46:58.001Z</time></trkpt><trkpt lat="40.63444448167473" lon="9.635489529273707"><ele>149.0</ele><time>2026-04-30T09:47:02.001Z</time></trkpt><trkpt lat="40.63446640691184" lon="9.63557463975243"><ele>149.0</ele><time>2026-04-30T09:47:05.001Z</time></trkpt><trkpt lat="40.63447117111827" lon="9.635678931242854"><ele>149.0</ele><time>2026-04-30T09:47:09.001Z</time></trkpt><trkpt lat="40.634465530568775" lon="9.635780815660773"><ele>145.66666666666666</ele><time>2026-04-30T09:47:13.001Z</time></trkpt><trkpt lat="40.63445518536281" lon="9.635901293368612"><ele>142.33333333333331</ele><time>2026-04-30T09:47:16.001Z</time></trkpt><trkpt lat="40.63444870324826" lon="9.635985685058994"><ele>139.0</ele><time>2026-04-30T09:47:18.001Z</time></trkpt><trkpt lat="40.63442983345262" lon="9.636082025434318"><ele>135.66666666666666</ele><time>2026-04-30T09:47:20.001Z</time></trkpt><trkpt lat="40.6344054571103" lon="9.636189795512873"><ele>132.33333333333334</ele><time>2026-04-30T09:48:56.001Z</time></trkpt><trkpt lat="40.63438693765266" lon="9.636274059184927"><ele>129.0</ele><time>2026-04-30T09:48:59.001Z</time></trkpt><trkpt lat="40.63438217850166" lon="9.636362400678209"><ele>126.33333333333333</ele><time>2026-04-30T09:49:03.001Z</time></trkpt><trkpt lat="40.63439142923983" lon="9.636456883104973"><ele>123.66666666666666</ele><time>2026-04-30T09:49:07.001Z</time></trkpt><trkpt lat="40.63437541770863" lon="9.636564387618003"><ele>121.0</ele><time>2026-04-30T09:49:10.001Z</time></trkpt><trkpt lat="40.634364484088216" lon="9.636649909560816"><ele>118.33333333333333</ele><time>2026-04-30T09:49:12.001Z</time></trkpt><trkpt lat="40.634341815045204" lon="9.636785177691506"><ele>115.66666666666666</ele><time>2026-04-30T09:49:14.001Z</time></trkpt><trkpt lat="40.63430708130903" lon="9.636936227458781"><ele>113.0</ele><time>2026-04-30T09:49:16.001Z</time></trkpt><trkpt lat="40.63430142849691" lon="9.637087238810588"><ele>111.49999999999999</ele><time>2026-04-30T09:49:18.001Z</time></trkpt><trkpt lat="40.634309325053756" lon="9.63717198297461"><ele>110.0</ele><time>2026-04-30T09:49:19.001Z</time></trkpt><trkpt lat="40.63431805492329" lon="9.637262335711261"><ele>108.5</ele><time>2026-04-30T09:49:20.001Z</time></trkpt><trkpt lat="40.63432734017117" lon="9.6374436464505"><ele>107.0</ele><time>2026-04-30T09:49:22.002Z</time></trkpt><trkpt lat="40.63432597826242" lon="9.637533776799266"><ele>105.49999999999999</ele><time>2026-04-30T09:49:23.002Z</time></trkpt><trkpt lat="40.634326190957374" lon="9.637617530847718"><ele>104.0</ele><time>2026-04-30T09:49:24.002Z</time></trkpt><trkpt lat="40.63432016906275" lon="9.637777443839878"><ele>102.4</ele><time>2026-04-30T09:49:26.002Z</time></trkpt><trkpt lat="40.63431720129036" lon="9.637916263890943"><ele>100.80000000000001</ele><time>2026-04-30T09:49:28.002Z</time></trkpt><trkpt lat="40.6343497895333" lon="9.638044189857682"><ele>99.19999999999999</ele><time>2026-04-30T09:49:30.002Z</time></trkpt><trkpt lat="40.63438705105233" lon="9.638159545831334"><ele>97.6</ele><time>2026-04-30T09:49:32.002Z</time></trkpt><trkpt lat="40.63441636482831" lon="9.638256953677754"><ele>96.0</ele><time>2026-04-30T09:49:34.002Z</time></trkpt><trkpt lat="40.63445521852594" lon="9.638353774758446"><ele>93.19999999999999</ele><time>2026-04-30T09:49:36.002Z</time></trkpt><trkpt lat="40.63450311706459" lon="9.638488724133648"><ele>90.39999999999999</ele><time>2026-04-30T09:49:38.002Z</time></trkpt><trkpt lat="40.634532880393735" lon="9.63860524043355"><ele>87.6</ele><time>2026-04-30T09:49:40.002Z</time></trkpt><trkpt lat="40.63456606853709" lon="9.638724687113436"><ele>84.8</ele><time>2026-04-30T09:49:42.002Z</time></trkpt><trkpt lat="40.63459437567435" lon="9.638831339846712"><ele>82.0</ele><time>2026-04-30T09:49:44.002Z</time></trkpt><trkpt lat="40.634613274987686" lon="9.638912137154245"><ele>80.5</ele><time>2026-04-30T09:49:46.002Z</time></trkpt><trkpt lat="40.634646803393224" lon="9.639020420945648"><ele>79.0</ele><time>2026-04-30T09:49:48.002Z</time></trkpt><trkpt lat="40.63467884955605" lon="9.639114517459937"><ele>77.5</ele><time>2026-04-30T09:49:50.001Z</time></trkpt><trkpt lat="40.634707538937334" lon="9.639206238748068"><ele>76.0</ele><time>2026-04-30T09:49:52.001Z</time></trkpt><trkpt lat="40.634724758939456" lon="9.63931150212442"><ele>74.5</ele><time>2026-04-30T09:49:54Z</time></trkpt><trkpt lat="40.63470722289807" lon="9.63942706875451"><ele>73.0</ele><time>2026-04-30T09:49:56Z</time></trkpt><trkpt lat="40.63467495941118" lon="9.639515259001996"><ele>72.66666666666666</ele><time>2026-04-30T09:49:59.001Z</time></trkpt><trkpt lat="40.63464404827074" lon="9.639588196289882"><ele>72.33333333333333</ele><time>2026-04-30T09:51:55.001Z</time></trkpt><trkpt lat="40.63460640083938" lon="9.6396911678648"><ele>72.0</ele><time>2026-04-30T09:52:51.001Z</time></trkpt><trkpt lat="40.6345830908999" lon="9.639778391773941"><ele>71.66666666666667</ele><time>2026-04-30T09:52:53.001Z</time></trkpt><trkpt lat="40.63456745605609" lon="9.639887287698548"><ele>71.33333333333334</ele><time>2026-04-30T09:52:55.001Z</time></trkpt><trkpt lat="40.63457858419595" lon="9.639998297887132"><ele>71.0</ele><time>2026-04-30T09:52:57.001Z</time></trkpt><trkpt lat="40.63457374457736" lon="9.640090678526285"><ele>71.0</ele><time>2026-04-30T09:52:58.001Z</time></trkpt><trkpt lat="40.63456514687515" lon="9.640198256915525"><ele>71.0</ele><time>2026-04-30T09:52:59.001Z</time></trkpt><trkpt lat="40.63458194899445" lon="9.640283495956124"><ele>71.0</ele><time>2026-04-30T09:53:00.001Z</time></trkpt><trkpt lat="40.63461403235351" lon="9.640400624465242"><ele>71.0</ele><time>2026-04-30T09:53:02.001Z</time></trkpt><trkpt lat="40.634618924312605" lon="9.640510671921442"><ele>71.0</ele><time>2026-04-30T09:53:03.001Z</time></trkpt><trkpt lat="40.63460761599381" lon="9.64063392163003"><ele>71.0</ele><time>2026-04-30T09:53:04.001Z</time></trkpt><trkpt lat="40.634614264007716" lon="9.640773484013032"><ele>71.5</ele><time>2026-04-30T09:53:05.001Z</time></trkpt><trkpt lat="40.63461736417309" lon="9.640943546759944"><ele>72.0</ele><time>2026-04-30T09:53:06.001Z</time></trkpt><trkpt lat="40.63462256015155" lon="9.641113509597092"><ele>72.5</ele><time>2026-04-30T09:53:07.001Z</time></trkpt><trkpt lat="40.63464491887386" lon="9.640879467813276"><ele>73.0</ele><time>2026-04-30T09:53:08.001Z</time></trkpt><trkpt lat="40.63466453312551" lon="9.640970554647827"><ele>73.0</ele><time>2026-04-30T09:53:09.001Z</time></trkpt><trkpt lat="40.63468340375243" lon="9.64106861534036"><ele>73.0</ele><time>2026-04-30T09:53:10.001Z</time></trkpt><trkpt lat="40.63470975924755" lon="9.6411761099509"><ele>73.0</ele><time>2026-04-30T09:53:11.001Z</time></trkpt><trkpt lat="40.63473365249266" lon="9.641273866124148"><ele>73.0</ele><time>2026-04-30T09:53:12.001Z</time></trkpt><trkpt lat="40.63475577526258" lon="9.64136763172531"><ele>73.0</ele><time>2026-04-30T09:53:13.001Z</time></trkpt><trkpt lat="40.63476775886206" lon="9.64150044234902"><ele>73.0</ele><time>2026-04-30T09:53:15.001Z</time></trkpt><trkpt lat="40.634776694370636" lon="9.641624055155086"><ele>74.16666666666666</ele><time>2026-04-30T09:53:17.001Z</time></trkpt><trkpt lat="40.63478437569166" lon="9.641743541379986"><ele>75.33333333333333</ele><time>2026-04-30T09:53:19.001Z</time></trkpt><trkpt lat="40.634801846606706" lon="9.641892050408376"><ele>76.5</ele><time>2026-04-30T09:53:21.001Z</time></trkpt><trkpt lat="40.6348142984836" lon="9.64198380765861"><ele>77.66666666666667</ele><time>2026-04-30T09:53:22.001Z</time></trkpt><trkpt lat="40.63483159159645" lon="9.64207876046938"><ele>78.83333333333334</ele><time>2026-04-30T09:53:23.001Z</time></trkpt><trkpt lat="40.634848984073166" lon="9.642171558150627"><ele>80.0</ele><time>2026-04-30T09:53:24.001Z</time></trkpt><trkpt lat="40.634868172420376" lon="9.642263932636467"><ele>80.66666666666667</ele><time>2026-04-30T09:53:25.001Z</time></trkpt><trkpt lat="40.634887264945796" lon="9.642355980467773"><ele>81.33333333333334</ele><time>2026-04-30T09:53:26.001Z</time></trkpt><trkpt lat="40.63491072419918" lon="9.642444631529198"><ele>82.0</ele><time>2026-04-30T09:53:27.002Z</time></trkpt><trkpt lat="40.63493391478372" lon="9.642523368457192"><ele>82.66666666666667</ele><time>2026-04-30T09:53:28.002Z</time></trkpt><trkpt lat="40.63498187914113" lon="9.642652028751405"><ele>83.33333333333333</ele><time>2026-04-30T09:53:30.002Z</time></trkpt><trkpt lat="40.63499996090135" lon="9.642798353481492"><ele>84.0</ele><time>2026-04-30T09:53:32.002Z</time></trkpt><trkpt lat="40.635003729242236" lon="9.642884083062345"><ele>84.0</ele><time>2026-04-30T09:53:34.002Z</time></trkpt><trkpt lat="40.63510071309067" lon="9.642961265602956"><ele>84.0</ele><time>2026-04-30T09:53:36.002Z</time></trkpt><trkpt lat="40.635161756554155" lon="9.64307748261985"><ele>84.0</ele><time>2026-04-30T09:53:38.002Z</time></trkpt><trkpt lat="40.635148123823456" lon="9.643177971812333"><ele>84.0</ele><time>2026-04-30T09:53:40.002Z</time></trkpt><trkpt lat="40.635100933719976" lon="9.643276142767313"><ele>84.0</ele><time>2026-04-30T09:53:42.002Z</time></trkpt><trkpt lat="40.63512500056755" lon="9.643412129463"><ele>84.0</ele><time>2026-04-30T09:53:44.002Z</time></trkpt><trkpt lat="40.635199153641516" lon="9.643493374860103"><ele>84.0</ele><time>2026-04-30T09:53:46.002Z</time></trkpt><trkpt lat="40.635269700796755" lon="9.643542091766717"><ele>84.0</ele><time>2026-04-30T09:53:48.002Z</time></trkpt><trkpt lat="40.63534355182449" lon="9.643539357619513"><ele>84.0</ele><time>2026-04-30T09:53:50.002Z</time></trkpt><trkpt lat="40.63540676312449" lon="9.6435031352493"><ele>84.0</ele><time>2026-04-30T09:53:52.002Z</time></trkpt><trkpt lat="40.63547564701184" lon="9.643478808261174"><ele>84.0</ele><time>2026-04-30T09:53:54.002Z</time></trkpt><trkpt lat="40.63554042839957" lon="9.643493195434962"><ele>81.8</ele><time>2026-04-30T09:53:56.002Z</time></trkpt><trkpt lat="40.63561838453413" lon="9.643540929388935"><ele>79.60000000000001</ele><time>2026-04-30T09:53:58.002Z</time></trkpt><trkpt lat="40.63572433740143" lon="9.643582270077282"><ele>77.4</ele><time>2026-04-30T09:54:00.001Z</time></trkpt><trkpt lat="40.63578950862443" lon="9.643593632859675"><ele>75.2</ele><time>2026-04-30T09:54:01.001Z</time></trkpt><trkpt lat="40.63588822067686" lon="9.643641456278111"><ele>73.0</ele><time>2026-04-30T09:54:03.001Z</time></trkpt><trkpt lat="40.635952302045624" lon="9.643726506383096"><ele>73.0</ele><time>2026-04-30T09:54:05.001Z</time></trkpt><trkpt lat="40.63600204988943" lon="9.643809711812477"><ele>73.0</ele><time>2026-04-30T09:54:07.001Z</time></trkpt><trkpt lat="40.63606661908603" lon="9.643899402953618"><ele>73.0</ele><time>2026-04-30T09:54:09.001Z</time></trkpt><trkpt lat="40.63612534653452" lon="9.644005013569819"><ele>73.0</ele><time>2026-04-30T09:54:11Z</time></trkpt><trkpt lat="40.63615078044683" lon="9.64410786021802"><ele>73.0</ele><time>2026-04-30T09:54:13.001Z</time></trkpt><trkpt lat="40.636181341187914" lon="9.644227885570114"><ele>69.83333333333333</ele><time>2026-04-30T09:54:15.001Z</time></trkpt><trkpt lat="40.636221730584396" lon="9.644373972425814"><ele>66.66666666666666</ele><time>2026-04-30T09:54:17.001Z</time></trkpt><trkpt lat="40.63624520686827" lon="9.644494156384178"><ele>63.5</ele><time>2026-04-30T09:54:19.001Z</time></trkpt><trkpt lat="40.63627238321413" lon="9.644582517967338"><ele>60.33333333333333</ele><time>2026-04-30T09:54:21.001Z</time></trkpt><trkpt lat="40.63630901758027" lon="9.644659034702883"><ele>57.166666666666664</ele><time>2026-04-30T09:54:23.001Z</time></trkpt><trkpt lat="40.63637660175811" lon="9.64471351601632"><ele>54.0</ele><time>2026-04-30T09:54:25.001Z</time></trkpt><trkpt lat="40.636480450078736" lon="9.644766439268249"><ele>53.400000000000006</ele><time>2026-04-30T09:54:27.001Z</time></trkpt><trkpt lat="40.636568504944684" lon="9.64483935070985"><ele>52.800000000000004</ele><time>2026-04-30T09:54:29.001Z</time></trkpt><trkpt lat="40.63664467827395" lon="9.644942487744922"><ele>52.2</ele><time>2026-04-30T09:54:31.001Z</time></trkpt><trkpt lat="40.636691585801316" lon="9.64504112595615"><ele>51.599999999999994</ele><time>2026-04-30T09:54:33.001Z</time></trkpt><trkpt lat="40.636743359037794" lon="9.645138004659035"><ele>51.0</ele><time>2026-04-30T09:54:35.001Z</time></trkpt><trkpt lat="40.63682164497782" lon="9.645221652214568"><ele>51.0</ele><time>2026-04-30T09:54:37.001Z</time></trkpt><trkpt lat="40.636885219785036" lon="9.645289377213938"><ele>51.0</ele><time>2026-04-30T09:54:39.001Z</time></trkpt><trkpt lat="40.636928581938385" lon="9.645377647677611"><ele>51.0</ele><time>2026-04-30T09:54:41.001Z</time></trkpt><trkpt lat="40.63694757436134" lon="9.645476261492666"><ele>51.0</ele><time>2026-04-30T09:54:43.001Z</time></trkpt><trkpt lat="40.63701744469956" lon="9.645579391549218"><ele>51.0</ele><time>2026-04-30T09:54:46.001Z</time></trkpt><trkpt lat="40.63708178976571" lon="9.645654154244848"><ele>51.0</ele><time>2026-04-30T09:54:48.001Z</time></trkpt><trkpt lat="40.63713959159919" lon="9.64571429091212"><ele>47.142857142857146</ele><time>2026-04-30T09:54:50.001Z</time></trkpt><trkpt lat="40.637187076339" lon="9.645792527685405"><ele>43.285714285714285</ele><time>2026-04-30T09:54:52.001Z</time></trkpt><trkpt lat="40.637211905469336" lon="9.645879085922155"><ele>39.42857142857143</ele><time>2026-04-30T09:54:54.001Z</time></trkpt><trkpt lat="40.63720292707254" lon="9.645971282140865"><ele>35.57142857142857</ele><time>2026-04-30T09:54:56.001Z</time></trkpt><trkpt lat="40.6371327750277" lon="9.646011613371765"><ele>31.714285714285715</ele><time>2026-04-30T09:54:59.001Z</time></trkpt><trkpt lat="40.63706467614567" lon="9.64604313921814"><ele>27.857142857142854</ele><time>2026-04-30T09:55:02.001Z</time></trkpt><trkpt lat="40.63704568078324" lon="9.64614117310408"><ele>24.0</ele><time>2026-04-30T09:55:06.001Z</time></trkpt><trkpt lat="40.637059155410356" lon="9.646259827597433"><ele>23.0</ele><time>2026-04-30T09:55:09.001Z</time></trkpt><trkpt lat="40.637018129907304" lon="9.646358974560007"><ele>22.0</ele><time>2026-04-30T09:55:12.001Z</time></trkpt><trkpt lat="40.63696627607503" lon="9.646419481989458"><ele>21.0</ele><time>2026-04-30T09:55:15.001Z</time></trkpt><trkpt lat="40.63690212903202" lon="9.646431411888436"><ele>20.0</ele><time>2026-04-30T09:55:17.001Z</time></trkpt><trkpt lat="40.636818091041604" lon="9.646438692793671"><ele>19.0</ele><time>2026-04-30T09:55:19.001Z</time></trkpt><trkpt lat="40.63670270180024" lon="9.646434977820102"><ele>18.0</ele><time>2026-04-30T09:55:21.001Z</time></trkpt><trkpt lat="40.63661643007694" lon="9.64643836694036"><ele>18.000000000000004</ele><time>2026-04-30T09:55:23.001Z</time></trkpt><trkpt lat="40.636535346949245" lon="9.646470976815273"><ele>18.0</ele><time>2026-04-30T09:55:30.002Z</time></trkpt><trkpt lat="40.6364699432357" lon="9.646485689698299"><ele>18.0</ele><time>2026-04-30T09:55:32.002Z</time></trkpt><trkpt lat="40.63640038052433" lon="9.64648751477616"><ele>18.0</ele><time>2026-04-30T09:55:34.002Z</time></trkpt><trkpt lat="40.63633270467798" lon="9.646493604661408"><ele>18.0</ele><time>2026-04-30T09:55:36.002Z</time></trkpt><trkpt lat="40.63625848898745" lon="9.646464549977912"><ele>18.000000000000004</ele><time>2026-04-30T09:55:38.002Z</time></trkpt><trkpt lat="40.63619487443128" lon="9.646434144790257"><ele>18.0</ele><time>2026-04-30T09:55:41.002Z</time></trkpt><trkpt lat="40.636102849294424" lon="9.646429839115495"><ele>17.571428571428573</ele><time>2026-04-30T09:55:45.002Z</time></trkpt><trkpt lat="40.63602279803642" lon="9.64640575231176"><ele>17.142857142857142</ele><time>2026-04-30T09:55:47.002Z</time></trkpt><trkpt lat="40.635957129684115" lon="9.646394259072462"><ele>16.714285714285715</ele><time>2026-04-30T09:55:49.002Z</time></trkpt><trkpt lat="40.63588513318218" lon="9.646396099075924"><ele>16.285714285714285</ele><time>2026-04-30T09:55:58.002Z</time></trkpt><trkpt lat="40.63581460642026" lon="9.646419438085514"><ele>15.857142857142858</ele><time>2026-04-30T09:56:01.002Z</time></trkpt><trkpt lat="40.63574211350489" lon="9.646420783724725"><ele>15.428571428571429</ele><time>2026-04-30T09:56:03.002Z</time></trkpt><trkpt lat="40.63566946788798" lon="9.646410142023782"><ele>15.0</ele><time>2026-04-30T09:56:05.002Z</time></trkpt><trkpt lat="40.63559828133242" lon="9.646377977225209"><ele>15.0</ele><time>2026-04-30T09:56:08Z</time></trkpt><trkpt lat="40.635505925658265" lon="9.646330282178635"><ele>15.0</ele><time>2026-04-30T09:56:11Z</time></trkpt><trkpt lat="40.63542421877569" lon="9.646334027543789"><ele>15.0</ele><time>2026-04-30T09:58:20Z</time></trkpt><trkpt lat="40.63535408688825" lon="9.646369769455378"><ele>15.0</ele><time>2026-04-30T09:58:25Z</time></trkpt><trkpt lat="40.635268598442906" lon="9.646410126524032"><ele>15.0</ele><time>2026-04-30T09:58:28Z</time></trkpt><trkpt lat="40.63518943707176" lon="9.646423769726082"><ele>15.0</ele><time>2026-04-30T09:58:31Z</time></trkpt><trkpt lat="40.63511065013578" lon="9.646443568077498"><ele>14.714285714285715</ele><time>2026-04-30T09:58:33Z</time></trkpt><trkpt lat="40.635041617062186" lon="9.64646447026605"><ele>14.428571428571427</ele><time>2026-04-30T09:58:35Z</time></trkpt><trkpt lat="40.634962991202634" lon="9.646471884122397"><ele>14.142857142857142</ele><time>2026-04-30T09:58:39Z</time></trkpt><trkpt lat="40.634879297271326" lon="9.646468661752145"><ele>13.857142857142858</ele><time>2026-04-30T09:58:43Z</time></trkpt><trkpt lat="40.63481245674283" lon="9.646482494609451"><ele>13.571428571428573</ele><time>2026-04-30T09:58:45Z</time></trkpt><trkpt lat="40.63475242513159" lon="9.646509760172568"><ele>13.285714285714285</ele><time>2026-04-30T09:58:47Z</time></trkpt><trkpt lat="40.63467868486867" lon="9.646520429132233"><ele>13.0</ele><time>2026-04-30T09:58:51Z</time></trkpt><trkpt lat="40.63460592239284" lon="9.646536537481524"><ele>13.0</ele><time>2026-04-30T09:58:54.001Z</time></trkpt><trkpt lat="40.63452482837318" lon="9.646537398824545"><ele>13.0</ele><time>2026-04-30T09:59:03.001Z</time></trkpt><trkpt lat="40.634458058368985" lon="9.646513828263462"><ele>13.0</ele><time>2026-04-30T09:59:05.001Z</time></trkpt><trkpt lat="40.63439035740663" lon="9.646529621365998"><ele>13.0</ele><time>2026-04-30T09:59:07.001Z</time></trkpt><trkpt lat="40.634308326802646" lon="9.646548706870243"><ele>13.0</ele><time>2026-04-30T09:59:11.001Z</time></trkpt><trkpt lat="40.6342440579217" lon="9.646543723371495"><ele>13.0</ele><time>2026-04-30T09:59:13.001Z</time></trkpt><trkpt lat="40.6341706593412" lon="9.64653860582895"><ele>13.0</ele><time>2026-04-30T09:59:16.001Z</time></trkpt><trkpt lat="40.63409594754287" lon="9.646558475170991"><ele>12.8</ele><time>2026-04-30T09:59:20.001Z</time></trkpt><trkpt lat="40.634010409030175" lon="9.64657831918837"><ele>12.600000000000001</ele><time>2026-04-30T09:59:23.001Z</time></trkpt><trkpt lat="40.633964285940586" lon="9.64666623102508"><ele>12.399999999999999</ele><time>2026-04-30T09:59:27.001Z</time></trkpt><trkpt lat="40.63390644127261" lon="9.646771200179892"><ele>12.2</ele><time>2026-04-30T10:01:21.001Z</time></trkpt><trkpt lat="40.63381138306246" lon="9.646778523198275"><ele>12.0</ele><time>2026-04-30T10:02:10.002Z</time></trkpt><trkpt lat="40.63369838770355" lon="9.646766137696916"><ele>11.571428571428571</ele><time>2026-04-30T10:02:12.002Z</time></trkpt><trkpt lat="40.633629237795375" lon="9.646768757581931"><ele>11.142857142857142</ele><time>2026-04-30T10:02:13.002Z</time></trkpt><trkpt lat="40.63352839798872" lon="9.646771496497474"><ele>10.714285714285715</ele><time>2026-04-30T10:02:15.002Z</time></trkpt><trkpt lat="40.63345953243921" lon="9.646786667430375"><ele>10.285714285714285</ele><time>2026-04-30T10:02:17.002Z</time></trkpt><trkpt lat="40.63343711464202" lon="9.646881714319967"><ele>9.857142857142858</ele><time>2026-04-30T10:02:20.002Z</time></trkpt><trkpt lat="40.63348077825681" lon="9.646941748865304"><ele>9.428571428571429</ele><time>2026-04-30T10:02:22.002Z</time></trkpt><trkpt lat="40.6335460393451" lon="9.646971542630654"><ele>9.0</ele><time>2026-04-30T10:02:24.001Z</time></trkpt><trkpt lat="40.633640560125976" lon="9.646986906769717"><ele>8.666666666666666</ele><time>2026-04-30T10:02:26.001Z</time></trkpt><trkpt lat="40.63374416622712" lon="9.647009963203162"><ele>8.333333333333334</ele><time>2026-04-30T10:02:28.001Z</time></trkpt><trkpt lat="40.6338362902996" lon="9.647053107669821"><ele>8.0</ele><time>2026-04-30T10:02:30.001Z</time></trkpt><trkpt lat="40.633915395072115" lon="9.64708694268837"><ele>7.666666666666667</ele><time>2026-04-30T10:02:32Z</time></trkpt><trkpt lat="40.63399842403217" lon="9.647131093050874"><ele>7.333333333333334</ele><time>2026-04-30T10:03:01.001Z</time></trkpt><trkpt lat="40.63396445603723" lon="9.64705271685224"><ele>7.0</ele><time>2026-04-30T10:03:08.001Z</time></trkpt><trkpt lat="40.63386387201778" lon="9.64705341024908"><ele>7.0</ele><time>2026-04-30T10:03:10.001Z</time></trkpt><trkpt lat="40.633780830002806" lon="9.647039285893259"><ele>6.999999999999999</ele><time>2026-04-30T10:03:12.001Z</time></trkpt><trkpt lat="40.633652415247454" lon="9.646991993351056"><ele>6.999999999999999</ele><time>2026-04-30T10:03:14.001Z</time></trkpt><trkpt lat="40.63358522792096" lon="9.64696060178163"><ele>7.0</ele><time>2026-04-30T10:03:15.001Z</time></trkpt><trkpt lat="40.633531454355555" lon="9.646907239705524"><ele>7.0</ele><time>2026-04-30T10:03:16.001Z</time></trkpt><trkpt lat="40.633440028278805" lon="9.646875319374727"><ele>7.3999999999999995</ele><time>2026-04-30T10:03:18.001Z</time></trkpt><trkpt lat="40.633351424185264" lon="9.64688003344877"><ele>7.799999999999999</ele><time>2026-04-30T10:03:20.001Z</time></trkpt><trkpt lat="40.633287925518744" lon="9.646944617287685"><ele>8.2</ele><time>2026-04-30T10:03:22.001Z</time></trkpt><trkpt lat="40.63322813475414" lon="9.646998787155898"><ele>8.6</ele><time>2026-04-30T10:03:24.001Z</time></trkpt><trkpt lat="40.63327047183333" lon="9.647172926330214"><ele>9.0</ele><time>2026-04-30T10:03:25.001Z</time></trkpt><trkpt lat="40.633205764746684" lon="9.647275015430106"><ele>8.166666666666666</ele><time>2026-04-30T10:03:27.001Z</time></trkpt><trkpt lat="40.63314682892993" lon="9.647367698669735"><ele>7.333333333333333</ele><time>2026-04-30T10:03:29.001Z</time></trkpt><trkpt lat="40.63309602075995" lon="9.647426387990238"><ele>6.5</ele><time>2026-04-30T10:03:31.001Z</time></trkpt><trkpt lat="40.63305212790137" lon="9.64749546549385"><ele>5.666666666666666</ele><time>2026-04-30T10:03:35.001Z</time></trkpt><trkpt lat="40.63311101690422" lon="9.647555675448414"><ele>4.833333333333333</ele><time>2026-04-30T10:03:50.001Z</time></trkpt><trkpt lat="40.633196758744766" lon="9.647508270619024"><ele>4.0</ele><time>2026-04-30T10:03:53.001Z</time></trkpt><trkpt lat="40.633292704636474" lon="9.647480844921635"><ele>3.9999999999999996</ele><time>2026-04-30T10:03:55.001Z</time></trkpt><trkpt lat="40.633360093116366" lon="9.647499827814945"><ele>4.0</ele><time>2026-04-30T10:03:57.002Z</time></trkpt><trkpt lat="40.633445114888325" lon="9.647545871178506"><ele>4.0</ele><time>2026-04-30T10:03:59.002Z</time></trkpt><trkpt lat="40.63351440332256" lon="9.647591730002166"><ele>4.0</ele><time>2026-04-30T10:04:01.002Z</time></trkpt><trkpt lat="40.633576006282354" lon="9.647568026533051"><ele>3.9999999999999996</ele><time>2026-04-30T10:04:04.002Z</time></trkpt><trkpt lat="40.63350179115571" lon="9.647494890894345"><ele>4.0</ele><time>2026-04-30T10:04:09.002Z</time></trkpt><trkpt lat="40.63341897601889" lon="9.647501506105861"><ele>3.9999999999999996</ele><time>2026-04-30T10:04:11.002Z</time></trkpt><trkpt lat="40.633329623736" lon="9.647513268399173"><ele>4.0</ele><time>2026-04-30T10:04:13.002Z</time></trkpt><trkpt lat="40.633239934955704" lon="9.647499692540622"><ele>4.0</ele><time>2026-04-30T10:04:15.002Z</time></trkpt><trkpt lat="40.633156534986405" lon="9.647475788458907"><ele>4.0</ele><time>2026-04-30T10:04:17.002Z</time></trkpt><trkpt lat="40.633081035665384" lon="9.647502371452665"><ele>3.9999999999999996</ele><time>2026-04-30T10:04:20.002Z</time></trkpt><trkpt lat="40.63301511561592" lon="9.64753796595979"><ele>4.0</ele><time>2026-04-30T10:04:44Z</time></trkpt><trkpt lat="40.63300309999205" lon="9.647454089233626"><ele>4.0</ele><time>2026-04-30T10:04:47Z</time></trkpt><trkpt lat="40.63308712158645" lon="9.64739623025878"><ele>4.0</ele><time>2026-04-30T10:04:50.001Z</time></trkpt><trkpt lat="40.633176165629976" lon="9.647359009874108"><ele>4.0</ele><time>2026-04-30T10:04:52.001Z</time></trkpt><trkpt lat="40.63324024810692" lon="9.647276118998384"><ele>4.0</ele><time>2026-04-30T10:04:54.001Z</time></trkpt><trkpt lat="40.633289048482716" lon="9.647156681517027"><ele>4.0</ele><time>2026-04-30T10:04:56.001Z</time></trkpt><trkpt lat="40.63335118353711" lon="9.647057312654496"><ele>3.9999999999999996</ele><time>2026-04-30T10:04:58.001Z</time></trkpt><trkpt lat="40.633407429376504" lon="9.646939696808625"><ele>4.0</ele><time>2026-04-30T10:05:00.001Z</time></trkpt><trkpt lat="40.63347274799802" lon="9.646922434213119"><ele>4.0</ele><time>2026-04-30T10:05:03.001Z</time></trkpt><trkpt lat="40.633565761220076" lon="9.646971557138402"><ele>4.0</ele><time>2026-04-30T10:05:05.001Z</time></trkpt><trkpt lat="40.63363568384183" lon="9.64699478821572"><ele>3.9999999999999996</ele><time>2026-04-30T10:05:06.001Z</time></trkpt><trkpt lat="40.63371648551643" lon="9.647012963021709"><ele>4.0</ele><time>2026-04-30T10:05:07.001Z</time></trkpt><trkpt lat="40.63378863445531" lon="9.647033704604778"><ele>4.6</ele><time>2026-04-30T10:05:08.001Z</time></trkpt><trkpt lat="40.63387728893969" lon="9.647056112014491"><ele>5.2</ele><time>2026-04-30T10:05:09.001Z</time></trkpt><trkpt lat="40.633954580910306" lon="9.647081988792085"><ele>5.799999999999999</ele><time>2026-04-30T10:05:10.001Z</time></trkpt><trkpt lat="40.63404667614884" lon="9.647107784209966"><ele>6.3999999999999995</ele><time>2026-04-30T10:05:11.001Z</time></trkpt><trkpt lat="40.63414214792336" lon="9.647133148522004"><ele>7.0</ele><time>2026-04-30T10:05:12.001Z</time></trkpt><trkpt lat="40.63424532827449" lon="9.647165799661913"><ele>7.0</ele><time>2026-04-30T10:05:13.001Z</time></trkpt><trkpt lat="40.63434146800985" lon="9.647202268471785"><ele>6.999999999999999</ele><time>2026-04-30T10:05:14.001Z</time></trkpt><trkpt lat="40.63442959342733" lon="9.647231827369517"><ele>6.999999999999999</ele><time>2026-04-30T10:05:15.001Z</time></trkpt><trkpt lat="40.63453021511676" lon="9.647267359162399"><ele>7.0</ele><time>2026-04-30T10:05:16.001Z</time></trkpt><trkpt lat="40.63462345140995" lon="9.647297343790429"><ele>7.0</ele><time>2026-04-30T10:05:17.001Z</time></trkpt><trkpt lat="40.63471005639208" lon="9.647328272205698"><ele>6.8</ele><time>2026-04-30T10:05:18.001Z</time></trkpt><trkpt lat="40.6348008514294" lon="9.647350508095151"><ele>6.6</ele><time>2026-04-30T10:05:19.001Z</time></trkpt><trkpt lat="40.63488359931598" lon="9.647389359364949"><ele>6.3999999999999995</ele><time>2026-04-30T10:05:20.001Z</time></trkpt><trkpt lat="40.63497815716757" lon="9.647417913260998"><ele>6.199999999999999</ele><time>2026-04-30T10:05:21.001Z</time></trkpt><trkpt lat="40.63507765267383" lon="9.647446673565582"><ele>6.0</ele><time>2026-04-30T10:05:22.001Z</time></trkpt><trkpt lat="40.63516713621711" lon="9.647475187847188"><ele>6.0</ele><time>2026-04-30T10:05:23.001Z</time></trkpt><trkpt lat="40.63524920732637" lon="9.647503063624356"><ele>6.0</ele><time>2026-04-30T10:05:24.001Z</time></trkpt><trkpt lat="40.63534272680028" lon="9.647528833199416"><ele>6.0</ele><time>2026-04-30T10:05:25.001Z</time></trkpt><trkpt lat="40.63542380942612" lon="9.647550429102754"><ele>6.0</ele><time>2026-04-30T10:05:26.001Z</time></trkpt><trkpt lat="40.635507854066596" lon="9.64756428915438"><ele>6.0</ele><time>2026-04-30T10:05:27.001Z</time></trkpt><trkpt lat="40.63558178978794" lon="9.647577859554186"><ele>6.0</ele><time>2026-04-30T10:05:28.001Z</time></trkpt><trkpt lat="40.63565911606088" lon="9.647598363061645"><ele>6.166666666666667</ele><time>2026-04-30T10:05:29.001Z</time></trkpt><trkpt lat="40.63573279435847" lon="9.647607277114462"><ele>6.333333333333334</ele><time>2026-04-30T10:05:30.001Z</time></trkpt><trkpt lat="40.635850380290094" lon="9.647611101397768"><ele>6.5</ele><time>2026-04-30T10:05:32.001Z</time></trkpt><trkpt lat="40.635924143301146" lon="9.647633494285358"><ele>6.666666666666667</ele><time>2026-04-30T10:05:34.001Z</time></trkpt><trkpt lat="40.63601847572744" lon="9.647629751676849"><ele>6.833333333333334</ele><time>2026-04-30T10:05:52.001Z</time></trkpt><trkpt lat="40.636085832060544" lon="9.647630911548081"><ele>7.0</ele><time>2026-04-30T10:05:53.002Z</time></trkpt><trkpt lat="40.63616104064565" lon="9.647644018648666"><ele>7.6</ele><time>2026-04-30T10:05:54.002Z</time></trkpt><trkpt lat="40.6362441520853" lon="9.647661245328669"><ele>8.2</ele><time>2026-04-30T10:05:55.002Z</time></trkpt><trkpt lat="40.6363314625039" lon="9.647703170482666"><ele>8.8</ele><time>2026-04-30T10:05:56.002Z</time></trkpt><trkpt lat="40.63643035152077" lon="9.647698651564804"><ele>9.4</ele><time>2026-04-30T10:05:57.002Z</time></trkpt><trkpt lat="40.63652278584396" lon="9.647716293643166"><ele>10.0</ele><time>2026-04-30T10:05:58.002Z</time></trkpt><trkpt lat="40.63662504396645" lon="9.647732347836088"><ele>10.0</ele><time>2026-04-30T10:05:59.002Z</time></trkpt><trkpt lat="40.63672544072573" lon="9.647743679483666"><ele>10.0</ele><time>2026-04-30T10:06:00.002Z</time></trkpt><trkpt lat="40.63682364411653" lon="9.647759639715584"><ele>10.0</ele><time>2026-04-30T10:06:01.002Z</time></trkpt><trkpt lat="40.63692829851963" lon="9.647775273929376"><ele>10.0</ele><time>2026-04-30T10:06:02.002Z</time></trkpt><trkpt lat="40.63703487575561" lon="9.64778951287101"><ele>10.0</ele><time>2026-04-30T10:06:03.002Z</time></trkpt><trkpt lat="40.637143403587494" lon="9.647786984183332"><ele>9.8</ele><time>2026-04-30T10:06:04.002Z</time></trkpt><trkpt lat="40.63725320267549" lon="9.647786798253845"><ele>9.6</ele><time>2026-04-30T10:06:05.002Z</time></trkpt><trkpt lat="40.6373595465255" lon="9.64778890606958"><ele>9.4</ele><time>2026-04-30T10:06:06.002Z</time></trkpt><trkpt lat="40.63746572911334" lon="9.64778631047208"><ele>9.2</ele><time>2026-04-30T10:06:07.002Z</time></trkpt><trkpt lat="40.63757629446136" lon="9.647787713168062"><ele>9.0</ele><time>2026-04-30T10:06:08.002Z</time></trkpt><trkpt lat="40.63767922028654" lon="9.647786368261118"><ele>9.0</ele><time>2026-04-30T10:06:09.002Z</time></trkpt><trkpt lat="40.63778715464563" lon="9.647790758296463"><ele>9.0</ele><time>2026-04-30T10:06:10.002Z</time></trkpt><trkpt lat="40.63789339591679" lon="9.647789532236015"><ele>9.0</ele><time>2026-04-30T10:06:11.002Z</time></trkpt><trkpt lat="40.6379984747118" lon="9.647795674815407"><ele>9.0</ele><time>2026-04-30T10:06:12.002Z</time></trkpt><trkpt lat="40.63810042462154" lon="9.647799726155602"><ele>9.0</ele><time>2026-04-30T10:06:13.002Z</time></trkpt><trkpt lat="40.63819927309595" lon="9.647799431101246"><ele>9.0</ele><time>2026-04-30T10:06:14.002Z</time></trkpt><trkpt lat="40.63829182388682" lon="9.64781087414965"><ele>9.0</ele><time>2026-04-30T10:06:15.002Z</time></trkpt><trkpt lat="40.63837118904623" lon="9.64781461511011"><ele>9.0</ele><time>2026-04-30T10:06:16.002Z</time></trkpt><trkpt lat="40.638444410288436" lon="9.647811901493649"><ele>9.0</ele><time>2026-04-30T10:06:17.002Z</time></trkpt><trkpt lat="40.63852634384546" lon="9.647800257295513"><ele>9.0</ele><time>2026-04-30T10:06:18.002Z</time></trkpt><trkpt lat="40.638604843765286" lon="9.647793250213267"><ele>9.0</ele><time>2026-04-30T10:06:19.002Z</time></trkpt><trkpt lat="40.63867001313522" lon="9.647781644821208"><ele>9.0</ele><time>2026-04-30T10:06:20.002Z</time></trkpt><trkpt lat="40.638780623473096" lon="9.647762095848826"><ele>9.0</ele><time>2026-04-30T10:06:22.002Z</time></trkpt><trkpt lat="40.638837835047866" lon="9.647708596481184"><ele>9.0</ele><time>2026-04-30T10:06:24.002Z</time></trkpt><trkpt lat="40.63882495068893" lon="9.647621917954998"><ele>9.0</ele><time>2026-04-30T10:06:27.002Z</time></trkpt><trkpt lat="40.63874721005307" lon="9.647626518118647"><ele>9.0</ele><time>2026-04-30T10:06:30.002Z</time></trkpt><trkpt lat="40.63869088496916" lon="9.64767222424057"><ele>9.0</ele><time>2026-04-30T10:06:32.002Z</time></trkpt><trkpt lat="40.638634170679374" lon="9.647745587683445"><ele>8.666666666666666</ele><time>2026-04-30T10:06:35Z</time></trkpt><trkpt lat="40.63871297762694" lon="9.647714447682185"><ele>8.333333333333334</ele><time>2026-04-30T10:06:45Z</time></trkpt><trkpt lat="40.638752592339486" lon="9.647579741673432"><ele>8.0</ele><time>2026-04-30T10:06:47Z</time></trkpt><trkpt lat="40.6388326486948" lon="9.647469008082343"><ele>7.666666666666667</ele><time>2026-04-30T10:06:49Z</time></trkpt><trkpt lat="40.63889005471133" lon="9.647420840486285"><ele>7.333333333333334</ele><time>2026-04-30T10:06:50Z</time></trkpt><trkpt lat="40.63894868047123" lon="9.647383117525616"><ele>7.0</ele><time>2026-04-30T10:06:51Z</time></trkpt><trkpt lat="40.63900424729547" lon="9.64734193043604"><ele>7.000000000000001</ele><time>2026-04-30T10:06:52Z</time></trkpt><trkpt lat="40.63904707307844" lon="9.64724321659785"><ele>7.0</ele><time>2026-04-30T10:06:54Z</time></trkpt><trkpt lat="40.63906639188446" lon="9.647065657032615"><ele>7.0</ele><time>2026-04-30T10:06:56Z</time></trkpt><trkpt lat="40.639075558495094" lon="9.646969771455721"><ele>7.0</ele><time>2026-04-30T10:06:57Z</time></trkpt><trkpt lat="40.63907103692976" lon="9.646872266834928"><ele>7.000000000000001</ele><time>2026-04-30T10:06:58Z</time></trkpt><trkpt lat="40.63905900177657" lon="9.646780754722933"><ele>7.0</ele><time>2026-04-30T10:06:59Z</time></trkpt><trkpt lat="40.63904511438605" lon="9.646685779029252"><ele>7.500000000000001</ele><time>2026-04-30T10:07:00Z</time></trkpt><trkpt lat="40.63904394542249" lon="9.646594830230068"><ele>8.0</ele><time>2026-04-30T10:07:01Z</time></trkpt><trkpt lat="40.639041965007145" lon="9.64650587504949"><ele>8.5</ele><time>2026-04-30T10:07:02Z</time></trkpt><trkpt lat="40.639047591157826" lon="9.646406967153442"><ele>9.0</ele><time>2026-04-30T10:07:03Z</time></trkpt><trkpt lat="40.639018379113196" lon="9.64628049751694"><ele>9.5</ele><time>2026-04-30T10:07:05Z</time></trkpt><trkpt lat="40.638977575297695" lon="9.64621531615361"><ele>10.0</ele><time>2026-04-30T10:07:06Z</time></trkpt><trkpt lat="40.638908040173696" lon="9.646075677862466"><ele>10.166666666666668</ele><time>2026-04-30T10:07:08Z</time></trkpt><trkpt lat="40.63887594299237" lon="9.645988992942277"><ele>10.333333333333334</ele><time>2026-04-30T10:07:09Z</time></trkpt><trkpt lat="40.63883135068551" lon="9.645906182184708"><ele>10.5</ele><time>2026-04-30T10:07:10Z</time></trkpt><trkpt lat="40.63878640303673" lon="9.645842716998986"><ele>10.666666666666666</ele><time>2026-04-30T10:07:11Z</time></trkpt><trkpt lat="40.63869693243054" lon="9.645730712263548"><ele>10.833333333333332</ele><time>2026-04-30T10:07:13Z</time></trkpt><trkpt lat="40.63859535136313" lon="9.645700419666973"><ele>11.0</ele><time>2026-04-30T10:07:15Z</time></trkpt><trkpt lat="40.638503909661196" lon="9.645701069273008"><ele>11.666666666666666</ele><time>2026-04-30T10:07:17Z</time></trkpt><trkpt lat="40.63844104807291" lon="9.645720358742844"><ele>12.333333333333332</ele><time>2026-04-30T10:07:18Z</time></trkpt><trkpt lat="40.63837189098966" lon="9.645753716782927"><ele>13.0</ele><time>2026-04-30T10:07:19Z</time></trkpt><trkpt lat="40.6383110403454" lon="9.64579330983893"><ele>13.666666666666666</ele><time>2026-04-30T10:07:20Z</time></trkpt><trkpt lat="40.63824965669031" lon="9.645878918707638"><ele>14.333333333333334</ele><time>2026-04-30T10:07:22Z</time></trkpt><trkpt lat="40.63825009992053" lon="9.645963269103738"><ele>15.0</ele><time>2026-04-30T10:07:24Z</time></trkpt><trkpt lat="40.6382840346849" lon="9.646094688743252"><ele>14.666666666666666</ele><time>2026-04-30T10:07:26Z</time></trkpt><trkpt lat="40.638313698938106" lon="9.646209738539055"><ele>14.333333333333332</ele><time>2026-04-30T10:07:28Z</time></trkpt><trkpt lat="40.638339894596925" lon="9.646319731298126"><ele>14.0</ele><time>2026-04-30T10:07:30Z</time></trkpt><trkpt lat="40.638360410082996" lon="9.64644263396506"><ele>13.666666666666666</ele><time>2026-04-30T10:07:32.001Z</time></trkpt><trkpt lat="40.638414504850154" lon="9.646513462036777"><ele>13.333333333333332</ele><time>2026-04-30T10:07:34.001Z</time></trkpt><trkpt lat="40.63847569297914" lon="9.646473274454745"><ele>13.0</ele><time>2026-04-30T10:07:36.001Z</time></trkpt><trkpt lat="40.63853086458458" lon="9.64638497987032"><ele>13.0</ele><time>2026-04-30T10:07:38.001Z</time></trkpt><trkpt lat="40.63859948468472" lon="9.646257157030993"><ele>13.0</ele><time>2026-04-30T10:07:40.001Z</time></trkpt><trkpt lat="40.638615523708694" lon="9.646126520478546"><ele>13.0</ele><time>2026-04-30T10:07:42.001Z</time></trkpt><trkpt lat="40.63859822119981" lon="9.646027195715611"><ele>13.0</ele><time>2026-04-30T10:07:44.001Z</time></trkpt><trkpt lat="40.63861207280563" lon="9.64587406205565"><ele>13.0</ele><time>2026-04-30T10:07:46.001Z</time></trkpt><trkpt lat="40.63867576514685" lon="9.645855352823498"><ele>12.666666666666666</ele><time>2026-04-30T10:07:48.001Z</time></trkpt><trkpt lat="40.6387588803443" lon="9.645860121369271"><ele>12.333333333333332</ele><time>2026-04-30T10:07:50.001Z</time></trkpt><trkpt lat="40.638843241822165" lon="9.64593214435432"><ele>12.0</ele><time>2026-04-30T10:07:52.001Z</time></trkpt><trkpt lat="40.63891015078705" lon="9.646061818742385"><ele>11.666666666666666</ele><time>2026-04-30T10:07:54.001Z</time></trkpt><trkpt lat="40.638942837502434" lon="9.646149213338825"><ele>11.333333333333332</ele><time>2026-04-30T10:07:55.001Z</time></trkpt><trkpt lat="40.63897322200549" lon="9.646223728299887"><ele>11.0</ele><time>2026-04-30T10:07:56.001Z</time></trkpt><trkpt lat="40.639035975533645" lon="9.64635196197752"><ele>10.833333333333332</ele><time>2026-04-30T10:07:58.001Z</time></trkpt><trkpt lat="40.63905010033779" lon="9.646470809194058"><ele>10.666666666666666</ele><time>2026-04-30T10:08:00.001Z</time></trkpt><trkpt lat="40.63903811287316" lon="9.646621402952613"><ele>10.5</ele><time>2026-04-30T10:08:02.001Z</time></trkpt><trkpt lat="40.63904376276781" lon="9.646711399441507"><ele>10.333333333333334</ele><time>2026-04-30T10:08:03.001Z</time></trkpt><trkpt lat="40.639047310166056" lon="9.646810236884997"><ele>10.166666666666668</ele><time>2026-04-30T10:08:04.001Z</time></trkpt><trkpt lat="40.639055543922936" lon="9.646911314900446"><ele>10.0</ele><time>2026-04-30T10:08:05.001Z</time></trkpt><trkpt lat="40.63906151257215" lon="9.647005053896475"><ele>9.4</ele><time>2026-04-30T10:08:06.001Z</time></trkpt><trkpt lat="40.63906445714738" lon="9.647095833675756"><ele>8.8</ele><time>2026-04-30T10:08:07.001Z</time></trkpt><trkpt lat="40.63904965157818" lon="9.647181884082892"><ele>8.2</ele><time>2026-04-30T10:08:08.001Z</time></trkpt><trkpt lat="40.639007643972164" lon="9.647334562155207"><ele>7.6</ele><time>2026-04-30T10:08:10.001Z</time></trkpt><trkpt lat="40.63893314457635" lon="9.647431795149343"><ele>7.0</ele><time>2026-04-30T10:08:12.001Z</time></trkpt><trkpt lat="40.63883735696193" lon="9.64748213050514"><ele>7.000000000000001</ele><time>2026-04-30T10:08:14.001Z</time></trkpt><trkpt lat="40.63878231578149" lon="9.647530032056927"><ele>7.0</ele><time>2026-04-30T10:08:15.001Z</time></trkpt><trkpt lat="40.63873088398814" lon="9.647639649147186"><ele>7.0</ele><time>2026-04-30T10:08:17.001Z</time></trkpt><trkpt lat="40.63875830337464" lon="9.647720135636106"><ele>7.0</ele><time>2026-04-30T10:08:19.001Z</time></trkpt><trkpt lat="40.638827775664275" lon="9.647765304689477"><ele>7.000000000000001</ele><time>2026-04-30T10:08:21.001Z</time></trkpt><trkpt lat="40.63891035309969" lon="9.647763065884407"><ele>7.0</ele><time>2026-04-30T10:08:23.001Z</time></trkpt><trkpt lat="40.63900029360475" lon="9.647742619373437"><ele>7.0</ele><time>2026-04-30T10:08:25.001Z</time></trkpt><trkpt lat="40.639100750662344" lon="9.647701099512595"><ele>6.999999999999999</ele><time>2026-04-30T10:08:27.001Z</time></trkpt><trkpt lat="40.639158009680784" lon="9.647644903901682"><ele>6.999999999999999</ele><time>2026-04-30T10:08:29.001Z</time></trkpt><trkpt lat="40.63923474236588" lon="9.647557675894731"><ele>7.0</ele><time>2026-04-30T10:08:31.001Z</time></trkpt><trkpt lat="40.63932024696265" lon="9.647476721443619"><ele>7.0</ele><time>2026-04-30T10:08:33.002Z</time></trkpt><trkpt lat="40.63938539433124" lon="9.647410212711172"><ele>7.0</ele><time>2026-04-30T10:08:35.002Z</time></trkpt><trkpt lat="40.63943814135933" lon="9.647298975228821"><ele>6.999999999999999</ele><time>2026-04-30T10:08:37.002Z</time></trkpt><trkpt lat="40.63945148326811" lon="9.647217427343923"><ele>6.999999999999999</ele><time>2026-04-30T10:08:38.002Z</time></trkpt><trkpt lat="40.63947930887216" lon="9.647060969330694"><ele>7.0</ele><time>2026-04-30T10:08:40.002Z</time></trkpt><trkpt lat="40.639488689496076" lon="9.646977872185298"><ele>7.0</ele><time>2026-04-30T10:08:40.999Z</time></trkpt><trkpt lat="40.63949488964732" lon="9.646828481242784"><ele>6.666666666666667</ele><time>2026-04-30T10:08:42.999Z</time></trkpt><trkpt lat="40.63951752417827" lon="9.646705400757888"><ele>6.333333333333334</ele><time>2026-04-30T10:08:44.999Z</time></trkpt><trkpt lat="40.63957158826175" lon="9.646618478221708"><ele>6.0</ele><time>2026-04-30T10:08:47.999Z</time></trkpt><trkpt lat="40.63952053452251" lon="9.646670661895133"><ele>5.666666666666667</ele><time>2026-04-30T10:09:17Z</time></trkpt><trkpt lat="40.639476171807864" lon="9.646747411340652"><ele>5.333333333333334</ele><time>2026-04-30T10:09:37Z</time></trkpt><trkpt lat="40.63939295922771" lon="9.64669869634869"><ele>5.0</ele><time>2026-04-30T10:09:41Z</time></trkpt><trkpt lat="40.63934707887899" lon="9.646639025968176"><ele>6.0</ele><time>2026-04-30T10:09:43Z</time></trkpt><trkpt lat="40.63925945145565" lon="9.646618237488319"><ele>7.0</ele><time>2026-04-30T10:09:45Z</time></trkpt><trkpt lat="40.63914740930711" lon="9.646629937137304"><ele>8.0</ele><time>2026-04-30T10:09:47.001Z</time></trkpt><trkpt lat="40.63907042848121" lon="9.646695227383674"><ele>9.0</ele><time>2026-04-30T10:09:49.001Z</time></trkpt><trkpt lat="40.639053404916304" lon="9.646794621044092"><ele>10.0</ele><time>2026-04-30T10:09:51.001Z</time></trkpt><trkpt lat="40.639068298072736" lon="9.646954858706568"><ele>9.5</ele><time>2026-04-30T10:09:53.001Z</time></trkpt><trkpt lat="40.63907380889821" lon="9.647042919532572"><ele>9.0</ele><time>2026-04-30T10:09:54.001Z</time></trkpt><trkpt lat="40.63906373370002" lon="9.647134126095011"><ele>8.5</ele><time>2026-04-30T10:09:55.001Z</time></trkpt><trkpt lat="40.63904068040914" lon="9.647214368290495"><ele>8.0</ele><time>2026-04-30T10:09:56.001Z</time></trkpt><trkpt lat="40.63901141545549" lon="9.647293339292329"><ele>7.500000000000001</ele><time>2026-04-30T10:09:57.001Z</time></trkpt><trkpt lat="40.6389452304696" lon="9.647401864222205"><ele>7.0</ele><time>2026-04-30T10:09:59.001Z</time></trkpt><trkpt lat="40.638838969813555" lon="9.64745880553538"><ele>7.0</ele><time>2026-04-30T10:10:01.001Z</time></trkpt><trkpt lat="40.63873480317078" lon="9.647583330504748"><ele>6.999999999999999</ele><time>2026-04-30T10:10:03.001Z</time></trkpt><trkpt lat="40.63868024393021" lon="9.647662467877144"><ele>6.999999999999999</ele><time>2026-04-30T10:10:04.001Z</time></trkpt><trkpt lat="40.638616509138764" lon="9.647716934966388"><ele>7.0</ele><time>2026-04-30T10:10:05.001Z</time></trkpt><trkpt lat="40.638537289351824" lon="9.647768549354295"><ele>7.0</ele><time>2026-04-30T10:10:06.001Z</time></trkpt><trkpt lat="40.63845274837304" lon="9.647801976151213"><ele>7.0</ele><time>2026-04-30T10:10:07.001Z</time></trkpt><trkpt lat="40.63835703969517" lon="9.647820229256984"><ele>6.999999999999999</ele><time>2026-04-30T10:10:08.001Z</time></trkpt><trkpt lat="40.63827220353702" lon="9.647806468241793"><ele>6.999999999999999</ele><time>2026-04-30T10:10:09.001Z</time></trkpt><trkpt lat="40.63815957245437" lon="9.647798060131963"><ele>7.0</ele><time>2026-04-30T10:10:10.001Z</time></trkpt><trkpt lat="40.638040646800704" lon="9.647788984266247"><ele>7.0</ele><time>2026-04-30T10:10:11.001Z</time></trkpt><trkpt lat="40.637916744358414" lon="9.647780095091612"><ele>7.5</ele><time>2026-04-30T10:10:12.001Z</time></trkpt><trkpt lat="40.63777204835785" lon="9.647781170199565"><ele>8.0</ele><time>2026-04-30T10:10:13.001Z</time></trkpt><trkpt lat="40.63762910815912" lon="9.647774457989264"><ele>8.5</ele><time>2026-04-30T10:10:14.001Z</time></trkpt><trkpt lat="40.63748850681181" lon="9.647776564733958"><ele>9.0</ele><time>2026-04-30T10:10:15.001Z</time></trkpt><trkpt lat="40.63735956482177" lon="9.647776725469978"><ele>9.0</ele><time>2026-04-30T10:10:16.001Z</time></trkpt><trkpt lat="40.63723723691729" lon="9.64777888880571"><ele>9.0</ele><time>2026-04-30T10:10:17.001Z</time></trkpt><trkpt lat="40.637127354575476" lon="9.647781531137353"><ele>9.0</ele><time>2026-04-30T10:10:18.001Z</time></trkpt><trkpt lat="40.63702028560391" lon="9.647776669471112"><ele>9.0</ele><time>2026-04-30T10:10:19.001Z</time></trkpt><trkpt lat="40.636917743875266" lon="9.647769563446944"><ele>9.0</ele><time>2026-04-30T10:10:20.001Z</time></trkpt><trkpt lat="40.636807608678986" lon="9.647758312068628"><ele>9.2</ele><time>2026-04-30T10:10:21.001Z</time></trkpt><trkpt lat="40.6366984832571" lon="9.647742188105838"><ele>9.4</ele><time>2026-04-30T10:10:22.001Z</time></trkpt><trkpt lat="40.63658769628815" lon="9.647727340525176"><ele>9.6</ele><time>2026-04-30T10:10:23.001Z</time></trkpt><trkpt lat="40.63648140081684" lon="9.647680957334817"><ele>9.8</ele><time>2026-04-30T10:10:24.001Z</time></trkpt><trkpt lat="40.63636616333893" lon="9.647664208705546"><ele>10.0</ele><time>2026-04-30T10:10:25.001Z</time></trkpt><trkpt lat="40.63626285283114" lon="9.64764919330826"><ele>10.0</ele><time>2026-04-30T10:10:26.001Z</time></trkpt><trkpt lat="40.63616246428808" lon="9.647654130726973"><ele>10.0</ele><time>2026-04-30T10:10:27.001Z</time></trkpt><trkpt lat="40.636083672687356" lon="9.64764102635642"><ele>10.0</ele><time>2026-04-30T10:10:28.001Z</time></trkpt><trkpt lat="40.636019989978315" lon="9.647633240740843"><ele>10.0</ele><time>2026-04-30T10:10:29.001Z</time></trkpt><trkpt lat="40.63595348125996" lon="9.647629757789028"><ele>10.0</ele><time>2026-04-30T10:10:31.001Z</time></trkpt><trkpt lat="40.6358769261208" lon="9.647602296432254"><ele>10.0</ele><time>2026-04-30T10:10:43.002Z</time></trkpt><trkpt lat="40.63573590104278" lon="9.647593133202228"><ele>9.5</ele><time>2026-04-30T10:10:45.002Z</time></trkpt><trkpt lat="40.635646782247456" lon="9.647578577062903"><ele>9.0</ele><time>2026-04-30T10:10:46Z</time></trkpt><trkpt lat="40.63556479045194" lon="9.647567227895674"><ele>8.5</ele><time>2026-04-30T10:10:47Z</time></trkpt><trkpt lat="40.63548167579639" lon="9.647553446639298"><ele>8.0</ele><time>2026-04-30T10:10:48Z</time></trkpt><trkpt lat="40.63541045164606" lon="9.647534957496426"><ele>7.500000000000001</ele><time>2026-04-30T10:10:49Z</time></trkpt><trkpt lat="40.635300492686696" lon="9.647482098109522"><ele>7.0</ele><time>2026-04-30T10:10:51Z</time></trkpt><trkpt lat="40.63523683692354" lon="9.647483874188687"><ele>6.833333333333334</ele><time>2026-04-30T10:10:52Z</time></trkpt><trkpt lat="40.635171620284055" lon="9.647456954317972"><ele>6.666666666666667</ele><time>2026-04-30T10:10:53Z</time></trkpt><trkpt lat="40.635101389389256" lon="9.647430974752512"><ele>6.5</ele><time>2026-04-30T10:10:54Z</time></trkpt><trkpt lat="40.63502232471858" lon="9.64740682301969"><ele>6.333333333333334</ele><time>2026-04-30T10:10:55Z</time></trkpt><trkpt lat="40.634930005964385" lon="9.647378580323165"><ele>6.166666666666667</ele><time>2026-04-30T10:10:56Z</time></trkpt><trkpt lat="40.63483686233198" lon="9.647349997916526"><ele>6.0</ele><time>2026-04-30T10:10:57Z</time></trkpt><trkpt lat="40.6347343011175" lon="9.647318835022551"><ele>6.0</ele><time>2026-04-30T10:10:58Z</time></trkpt><trkpt lat="40.634619352216305" lon="9.647283517691662"><ele>6.0</ele><time>2026-04-30T10:10:59Z</time></trkpt><trkpt lat="40.634508907668" lon="9.647248097701421"><ele>6.0</ele><time>2026-04-30T10:11:00Z</time></trkpt><trkpt lat="40.634406095199836" lon="9.647196792282102"><ele>6.0</ele><time>2026-04-30T10:11:01Z</time></trkpt><trkpt lat="40.63430820003292" lon="9.647165389819953"><ele>6.0</ele><time>2026-04-30T10:11:02Z</time></trkpt><trkpt lat="40.634211051431215" lon="9.647134226900317"><ele>6.199999999999999</ele><time>2026-04-30T10:11:03Z</time></trkpt><trkpt lat="40.63410866089334" lon="9.647100690878835"><ele>6.3999999999999995</ele><time>2026-04-30T10:11:04Z</time></trkpt><trkpt lat="40.63400510640214" lon="9.647066576942475"><ele>6.6</ele><time>2026-04-30T10:11:05Z</time></trkpt><trkpt lat="40.63390523228433" lon="9.647033675202925"><ele>6.8</ele><time>2026-04-30T10:11:06Z</time></trkpt><trkpt lat="40.633821117310404" lon="9.647005806406186"><ele>7.0</ele><time>2026-04-30T10:11:07Z</time></trkpt><trkpt lat="40.63373944595655" lon="9.646978393832985"><ele>7.333333333333334</ele><time>2026-04-30T10:11:08Z</time></trkpt><trkpt lat="40.63366683455226" lon="9.646954022185453"><ele>7.666666666666667</ele><time>2026-04-30T10:11:09Z</time></trkpt><trkpt lat="40.63360381411046" lon="9.646932503216659"><ele>8.0</ele><time>2026-04-30T10:11:10Z</time></trkpt><trkpt lat="40.63353530240737" lon="9.646908583225288"><ele>8.333333333333334</ele><time>2026-04-30T10:11:13.001Z</time></trkpt><trkpt lat="40.63347405456651" lon="9.646887199256124"><ele>8.666666666666666</ele><time>2026-04-30T10:11:16.001Z</time></trkpt><trkpt lat="40.633371898702244" lon="9.64685153233881"><ele>9.0</ele><time>2026-04-30T10:11:18.001Z</time></trkpt><trkpt lat="40.63330661230104" lon="9.646914008370402"><ele>9.0</ele><time>2026-04-30T10:11:25.001Z</time></trkpt><trkpt lat="40.63323927641861" lon="9.646888672669506"><ele>9.0</ele><time>2026-04-30T10:11:30.001Z</time></trkpt><trkpt lat="40.633310904929445" lon="9.646888097902004"><ele>9.0</ele><time>2026-04-30T10:11:37.001Z</time></trkpt><trkpt lat="40.63306046476634" lon="9.64765380997394"><ele>8.571428571428573</ele><time>2026-04-30T10:13:53.001Z</time></trkpt><trkpt lat="40.63303534127923" lon="9.647734574596432"><ele>8.142857142857142</ele><time>2026-04-30T10:14:32.002Z</time></trkpt><trkpt lat="40.63299851983708" lon="9.647849414601787"><ele>7.714285714285714</ele><time>2026-04-30T10:15:52.002Z</time></trkpt><trkpt lat="40.6329877364021" lon="9.647933290420633"><ele>7.2857142857142865</ele><time>2026-04-30T10:17:03.003Z</time></trkpt><trkpt lat="40.63302191453488" lon="9.648015188605923"><ele>6.857142857142858</ele><time>2026-04-30T10:17:10.002Z</time></trkpt><trkpt lat="40.6330039635069" lon="9.648110293116412"><ele>6.428571428571428</ele><time>2026-04-30T10:27:30.002Z</time></trkpt><trkpt lat="40.632962642143134" lon="9.6481964287815"><ele>6.0</ele><time>2026-04-30T10:27:46Z</time></trkpt><trkpt lat="40.63293777104406" lon="9.64827541439327"><ele>5.999999999999999</ele><time>2026-04-30T10:27:50.001Z</time></trkpt><trkpt lat="40.632926577412285" lon="9.64836135256196"><ele>6.0</ele><time>2026-04-30T10:27:54.001Z</time></trkpt><trkpt lat="40.6328928729102" lon="9.648439584133948"><ele>6.0</ele><time>2026-04-30T10:29:04.001Z</time></trkpt><trkpt lat="40.632888180907905" lon="9.648523755920719"><ele>6.0</ele><time>2026-04-30T10:29:23.001Z</time></trkpt><trkpt lat="40.63286581262141" lon="9.648608843227464"><ele>6.0</ele><time>2026-04-30T10:30:48.001Z</time></trkpt><trkpt lat="40.63285951992799" lon="9.648695865783187"><ele>5.999999999999999</ele><time>2026-04-30T10:31:00.001Z</time></trkpt><trkpt lat="40.63285579197754" lon="9.648780875821268"><ele>6.0</ele><time>2026-04-30T10:31:04.001Z</time></trkpt><trkpt lat="40.63285370871049" lon="9.648865881129"><ele>6.7142857142857135</ele><time>2026-04-30T10:31:07.001Z</time></trkpt><trkpt lat="40.63285142710049" lon="9.648959519993532"><ele>7.428571428571429</ele><time>2026-04-30T10:31:11.001Z</time></trkpt><trkpt lat="40.632849333239456" lon="9.649053240113743"><ele>8.142857142857142</ele><time>2026-04-30T10:31:15.001Z</time></trkpt><trkpt lat="40.632851019116345" lon="9.649139417213108"><ele>8.857142857142858</ele><time>2026-04-30T10:31:20.001Z</time></trkpt><trkpt lat="40.63284479557148" lon="9.649236594475566"><ele>9.571428571428571</ele><time>2026-04-30T10:31:25.001Z</time></trkpt><trkpt lat="40.632845133394085" lon="9.649332112437133"><ele>10.285714285714286</ele><time>2026-04-30T10:31:29.001Z</time></trkpt><trkpt lat="40.63283223218743" lon="9.64942166062189"><ele>11.0</ele><time>2026-04-30T10:31:33.001Z</time></trkpt><trkpt lat="40.63284267526583" lon="9.649504013845048"><ele>11.857142857142858</ele><time>2026-04-30T10:31:37.001Z</time></trkpt><trkpt lat="40.63284932233031" lon="9.649589895926313"><ele>12.714285714285714</ele><time>2026-04-30T10:31:41.001Z</time></trkpt><trkpt lat="40.63286956873696" lon="9.649675018581691"><ele>13.57142857142857</ele><time>2026-04-30T10:31:59Z</time></trkpt><trkpt lat="40.632878909461304" lon="9.649769669156449"><ele>14.428571428571427</ele><time>2026-04-30T10:32:07Z</time></trkpt><trkpt lat="40.632888694206905" lon="9.649866353276806"><ele>15.285714285714285</ele><time>2026-04-30T10:32:15Z</time></trkpt><trkpt lat="40.632898433117894" lon="9.649950969133267"><ele>16.142857142857142</ele><time>2026-04-30T10:32:23Z</time></trkpt><trkpt lat="40.63290170396327" lon="9.650050120575742"><ele>17.0</ele><time>2026-04-30T10:32:29Z</time></trkpt><trkpt lat="40.63290633778246" lon="9.650138156494698"><ele>16.999999999999996</ele><time>2026-04-30T10:32:44Z</time></trkpt><trkpt lat="40.63290703241803" lon="9.650222035898436"><ele>17.0</ele><time>2026-04-30T10:32:49.001Z</time></trkpt><trkpt lat="40.6329055918258" lon="9.65031138491168"><ele>17.0</ele><time>2026-04-30T10:32:53.001Z</time></trkpt><trkpt lat="40.63290266768239" lon="9.650397648770726"><ele>17.0</ele><time>2026-04-30T10:33:01.001Z</time></trkpt><trkpt lat="40.632916128017364" lon="9.650497866693179"><ele>17.0</ele><time>2026-04-30T10:33:06.001Z</time></trkpt><trkpt lat="40.63298313879144" lon="9.650476751799465"><ele>16.999999999999996</ele><time>2026-04-30T10:33:11.001Z</time></trkpt><trkpt lat="40.63293606743072" lon="9.650536766203738"><ele>17.0</ele><time>2026-04-30T11:41:01.996Z</time></trkpt><trkpt lat="40.632922657763686" lon="9.650689650493474"><ele>16.833333333333336</ele><time>2026-04-30T11:41:03.995Z</time></trkpt><trkpt lat="40.6329212884674" lon="9.650789692040288"><ele>16.666666666666668</ele><time>2026-04-30T11:41:04.995Z</time></trkpt><trkpt lat="40.6329060174542" lon="9.650897297972238"><ele>16.5</ele><time>2026-04-30T11:41:05.995Z</time></trkpt><trkpt lat="40.632934891478" lon="9.651007634197084"><ele>16.333333333333332</ele><time>2026-04-30T11:41:06.995Z</time></trkpt><trkpt lat="40.63297369183038" lon="9.651115870028162"><ele>16.166666666666664</ele><time>2026-04-30T11:41:07.995Z</time></trkpt><trkpt lat="40.63304106842511" lon="9.651200218176676"><ele>16.0</ele><time>2026-04-30T11:41:08.995Z</time></trkpt><trkpt lat="40.63310689775743" lon="9.651280923403938"><ele>16.0</ele><time>2026-04-30T11:41:09.995Z</time></trkpt><trkpt lat="40.63319619487564" lon="9.651338573881372"><ele>16.0</ele><time>2026-04-30T11:41:10.995Z</time></trkpt><trkpt lat="40.63328742215745" lon="9.651391088396757"><ele>16.0</ele><time>2026-04-30T11:41:11.995Z</time></trkpt><trkpt lat="40.633384051167106" lon="9.651429901645802"><ele>16.0</ele><time>2026-04-30T11:41:12.995Z</time></trkpt><trkpt lat="40.633496628831494" lon="9.651471528675556"><ele>16.0</ele><time>2026-04-30T11:41:13.994Z</time></trkpt><trkpt lat="40.633612671029326" lon="9.651514840849005"><ele>16.5</ele><time>2026-04-30T11:41:14.994Z</time></trkpt><trkpt lat="40.633737779178425" lon="9.651561787393614"><ele>17.0</ele><time>2026-04-30T11:41:15.995Z</time></trkpt><trkpt lat="40.63385915171081" lon="9.651613297013686"><ele>17.5</ele><time>2026-04-30T11:41:16.995Z</time></trkpt><trkpt lat="40.633988764399696" lon="9.651663513093249"><ele>18.0</ele><time>2026-04-30T11:41:17.995Z</time></trkpt><trkpt lat="40.634125706179404" lon="9.651708641487303"><ele>18.0</ele><time>2026-04-30T11:41:18.995Z</time></trkpt><trkpt lat="40.634264771102046" lon="9.651758593642118"><ele>18.0</ele><time>2026-04-30T11:41:19.995Z</time></trkpt><trkpt lat="40.63441305850237" lon="9.651804271348992"><ele>18.0</ele><time>2026-04-30T11:41:20.995Z</time></trkpt><trkpt lat="40.63455573685899" lon="9.65185791509024"><ele>18.0</ele><time>2026-04-30T11:41:21.995Z</time></trkpt><trkpt lat="40.634701162148325" lon="9.65191112084047"><ele>17.25</ele><time>2026-04-30T11:41:22.995Z</time></trkpt><trkpt lat="40.63483617367998" lon="9.651962548460896"><ele>16.5</ele><time>2026-04-30T11:41:23.995Z</time></trkpt><trkpt lat="40.63497690042887" lon="9.652019991332116"><ele>15.75</ele><time>2026-04-30T11:41:24.995Z</time></trkpt><trkpt lat="40.63511677951638" lon="9.652070732999135"><ele>15.0</ele><time>2026-04-30T11:41:25.995Z</time></trkpt><trkpt lat="40.63524936410433" lon="9.652122946268335"><ele>15.5</ele><time>2026-04-30T11:41:26.995Z</time></trkpt><trkpt lat="40.63537698918779" lon="9.65217395575322"><ele>16.0</ele><time>2026-04-30T11:41:27.995Z</time></trkpt><trkpt lat="40.63550317136032" lon="9.652220016983769"><ele>16.5</ele><time>2026-04-30T11:41:28.995Z</time></trkpt><trkpt lat="40.63561731162054" lon="9.652268562673"><ele>17.0</ele><time>2026-04-30T11:41:29.995Z</time></trkpt><trkpt lat="40.63572637637686" lon="9.652314465582323"><ele>17.0</ele><time>2026-04-30T11:41:30.995Z</time></trkpt><trkpt lat="40.635821302298616" lon="9.65236489016795"><ele>17.0</ele><time>2026-04-30T11:41:31.995Z</time></trkpt><trkpt lat="40.63590121898628" lon="9.652393264009014"><ele>17.0</ele><time>2026-04-30T11:41:32.995Z</time></trkpt><trkpt lat="40.6359659482964" lon="9.652417972396126"><ele>17.0</ele><time>2026-04-30T11:41:33.995Z</time></trkpt><trkpt lat="40.63604002617961" lon="9.652620835268245"><ele>17.0</ele><time>2026-04-30T11:41:35.995Z</time></trkpt><trkpt lat="40.63607942278554" lon="9.652734032875465"><ele>16.75</ele><time>2026-04-30T11:41:36.995Z</time></trkpt><trkpt lat="40.636128511359196" lon="9.652867506768628"><ele>16.5</ele><time>2026-04-30T11:41:37.995Z</time></trkpt><trkpt lat="40.636188291790184" lon="9.65301191780432"><ele>16.25</ele><time>2026-04-30T11:41:38.995Z</time></trkpt><trkpt lat="40.63624931564877" lon="9.653164575546544"><ele>16.0</ele><time>2026-04-30T11:41:39.995Z</time></trkpt><trkpt lat="40.63631701368054" lon="9.653324796523885"><ele>17.333333333333332</ele><time>2026-04-30T11:41:40.995Z</time></trkpt><trkpt lat="40.6363842601415" lon="9.653493182562281"><ele>18.666666666666668</ele><time>2026-04-30T11:41:41.995Z</time></trkpt><trkpt lat="40.63645646388804" lon="9.653668523920608"><ele>20.0</ele><time>2026-04-30T11:41:42.995Z</time></trkpt><trkpt lat="40.636529320985574" lon="9.653851113192353"><ele>20.0</ele><time>2026-04-30T11:41:43.995Z</time></trkpt><trkpt lat="40.63660371376109" lon="9.65403833911088"><ele>20.0</ele><time>2026-04-30T11:41:44.996Z</time></trkpt><trkpt lat="40.63667971708778" lon="9.654217772448735"><ele>20.0</ele><time>2026-04-30T11:41:45.996Z</time></trkpt><trkpt lat="40.63674184325533" lon="9.65440590876202"><ele>19.666666666666668</ele><time>2026-04-30T11:41:46.996Z</time></trkpt><trkpt lat="40.63681629541589" lon="9.654591487600898"><ele>19.333333333333332</ele><time>2026-04-30T11:41:47.996Z</time></trkpt><trkpt lat="40.636888645621276" lon="9.654780422245675"><ele>19.0</ele><time>2026-04-30T11:41:48.996Z</time></trkpt><trkpt lat="40.63696546997864" lon="9.654961922985382"><ele>19.0</ele><time>2026-04-30T11:41:49.996Z</time></trkpt><trkpt lat="40.63704002906652" lon="9.655153285300122"><ele>19.0</ele><time>2026-04-30T11:41:50.996Z</time></trkpt><trkpt lat="40.63711540514315" lon="9.655343239636803"><ele>19.0</ele><time>2026-04-30T11:41:51.996Z</time></trkpt><trkpt lat="40.637176993085795" lon="9.65553132071831"><ele>19.0</ele><time>2026-04-30T11:41:52.996Z</time></trkpt><trkpt lat="40.6372503896247" lon="9.655723638985902"><ele>19.0</ele><time>2026-04-30T11:41:53.996Z</time></trkpt><trkpt lat="40.63731301909969" lon="9.65591762832905"><ele>19.0</ele><time>2026-04-30T11:41:54.996Z</time></trkpt><trkpt lat="40.63736239138415" lon="9.656118786483361"><ele>19.0</ele><time>2026-04-30T11:41:55.996Z</time></trkpt><trkpt lat="40.637402953296466" lon="9.656327078931927"><ele>19.0</ele><time>2026-04-30T11:41:56.996Z</time></trkpt><trkpt lat="40.63742426649102" lon="9.656540268232066"><ele>19.0</ele><time>2026-04-30T11:41:57.996Z</time></trkpt><trkpt lat="40.637430071330876" lon="9.656756343747642"><ele>19.333333333333332</ele><time>2026-04-30T11:41:58.996Z</time></trkpt><trkpt lat="40.63742448115988" lon="9.656975805141123"><ele>19.666666666666668</ele><time>2026-04-30T11:41:59.996Z</time></trkpt><trkpt lat="40.63740423659376" lon="9.657193170905312"><ele>20.0</ele><time>2026-04-30T11:42:00.996Z</time></trkpt><trkpt lat="40.637395048665184" lon="9.657420395061479"><ele>20.0</ele><time>2026-04-30T11:42:01.996Z</time></trkpt><trkpt lat="40.63738588444207" lon="9.657647033017312"><ele>20.0</ele><time>2026-04-30T11:42:02.996Z</time></trkpt><trkpt lat="40.637377113795445" lon="9.657874677569149"><ele>20.0</ele><time>2026-04-30T11:42:03.996Z</time></trkpt><trkpt lat="40.63736846031385" lon="9.658106712130847"><ele>20.0</ele><time>2026-04-30T11:42:04.996Z</time></trkpt><trkpt lat="40.63735991275362" lon="9.658335906520797"><ele>20.0</ele><time>2026-04-30T11:42:05.996Z</time></trkpt><trkpt lat="40.63735006342523" lon="9.65856183480312"><ele>20.0</ele><time>2026-04-30T11:42:06.996Z</time></trkpt><trkpt lat="40.637339755604415" lon="9.658792667141192"><ele>19.666666666666668</ele><time>2026-04-30T11:42:07.996Z</time></trkpt><trkpt lat="40.637328949780525" lon="9.65902406378414"><ele>19.333333333333332</ele><time>2026-04-30T11:42:08.996Z</time></trkpt><trkpt lat="40.637317511749764" lon="9.659261744939423"><ele>19.0</ele><time>2026-04-30T11:42:09.996Z</time></trkpt><trkpt lat="40.637305712613525" lon="9.659506504908485"><ele>18.666666666666664</ele><time>2026-04-30T11:42:10.996Z</time></trkpt><trkpt lat="40.637294057709774" lon="9.659748272913093"><ele>18.333333333333332</ele><time>2026-04-30T11:42:11.996Z</time></trkpt><trkpt lat="40.63728217742679" lon="9.659994716186198"><ele>18.0</ele><time>2026-04-30T11:42:12.996Z</time></trkpt><trkpt lat="40.63727016068157" lon="9.660243990140238"><ele>18.0</ele><time>2026-04-30T11:42:13.996Z</time></trkpt><trkpt lat="40.63725807828535" lon="9.660494338488952"><ele>18.0</ele><time>2026-04-30T11:42:14.996Z</time></trkpt><trkpt lat="40.63724647442948" lon="9.660744432162375"><ele>18.0</ele><time>2026-04-30T11:42:15.996Z</time></trkpt><trkpt lat="40.63723558303123" lon="9.660993492740092"><ele>17.666666666666668</ele><time>2026-04-30T11:42:16.996Z</time></trkpt><trkpt lat="40.637224591538306" lon="9.66124484223196"><ele>17.333333333333336</ele><time>2026-04-30T11:42:17.996Z</time></trkpt><trkpt lat="40.6372136308757" lon="9.661495485772152"><ele>17.0</ele><time>2026-04-30T11:42:18.996Z</time></trkpt><trkpt lat="40.6372028269503" lon="9.661746284602458"><ele>16.666666666666668</ele><time>2026-04-30T11:42:19.996Z</time></trkpt><trkpt lat="40.637192444486736" lon="9.6619950488419"><ele>16.333333333333332</ele><time>2026-04-30T11:42:20.996Z</time></trkpt><trkpt lat="40.637182171517644" lon="9.662244201240606"><ele>16.0</ele><time>2026-04-30T11:42:21.996Z</time></trkpt><trkpt lat="40.637172045173934" lon="9.66248979751496"><ele>16.0</ele><time>2026-04-30T11:42:22.996Z</time></trkpt><trkpt lat="40.63716193016159" lon="9.66273511890421"><ele>16.0</ele><time>2026-04-30T11:42:23.996Z</time></trkpt><trkpt lat="40.63715168156897" lon="9.662983680296696"><ele>16.0</ele><time>2026-04-30T11:42:24.996Z</time></trkpt><trkpt lat="40.63714145393971" lon="9.66323173308454"><ele>16.0</ele><time>2026-04-30T11:42:25.996Z</time></trkpt><trkpt lat="40.63713129233267" lon="9.663478184556725"><ele>16.0</ele><time>2026-04-30T11:42:26.996Z</time></trkpt><trkpt lat="40.63712115826529" lon="9.663723968220927"><ele>16.0</ele><time>2026-04-30T11:42:27.996Z</time></trkpt><trkpt lat="40.63711086471196" lon="9.663973620053667"><ele>15.666666666666666</ele><time>2026-04-30T11:42:28.996Z</time></trkpt><trkpt lat="40.63710124464269" lon="9.664226456589756"><ele>15.333333333333332</ele><time>2026-04-30T11:42:29.996Z</time></trkpt><trkpt lat="40.63709172437252" lon="9.66447987900277"><ele>15.0</ele><time>2026-04-30T11:42:30.996Z</time></trkpt><trkpt lat="40.63707955354548" lon="9.664734693492358"><ele>15.0</ele><time>2026-04-30T11:42:31.996Z</time></trkpt><trkpt lat="40.63706168224525" lon="9.664986355178886"><ele>15.0</ele><time>2026-04-30T11:42:32.996Z</time></trkpt><trkpt lat="40.63703796287946" lon="9.665234830449226"><ele>15.0</ele><time>2026-04-30T11:42:33.996Z</time></trkpt><trkpt lat="40.63701220612985" lon="9.665479015378216"><ele>15.0</ele><time>2026-04-30T11:42:34.996Z</time></trkpt><trkpt lat="40.63698496413227" lon="9.665720302107555"><ele>15.0</ele><time>2026-04-30T11:42:35.996Z</time></trkpt><trkpt lat="40.636957981675174" lon="9.665959291012825"><ele>15.0</ele><time>2026-04-30T11:42:36.996Z</time></trkpt><trkpt lat="40.63693170375887" lon="9.666202183113821"><ele>15.0</ele><time>2026-04-30T11:42:37.996Z</time></trkpt><trkpt lat="40.63690519688346" lon="9.666449064438565"><ele>15.0</ele><time>2026-04-30T11:42:38.996Z</time></trkpt><trkpt lat="40.63687730010764" lon="9.66669492996993"><ele>15.0</ele><time>2026-04-30T11:42:39.996Z</time></trkpt><trkpt lat="40.6368500189622" lon="9.666926888663278"><ele>15.333333333333332</ele><time>2026-04-30T11:42:40.996Z</time></trkpt><trkpt lat="40.63683460879026" lon="9.667147541062914"><ele>15.666666666666666</ele><time>2026-04-30T11:42:41.996Z</time></trkpt><trkpt lat="40.636830588471035" lon="9.66735977193068"><ele>16.0</ele><time>2026-04-30T11:42:42.996Z</time></trkpt><trkpt lat="40.63685091935685" lon="9.667570322602081"><ele>16.0</ele><time>2026-04-30T11:42:43.996Z</time></trkpt><trkpt lat="40.6369081513148" lon="9.667761006164675"><ele>16.0</ele><time>2026-04-30T11:42:44.996Z</time></trkpt><trkpt lat="40.63695309758727" lon="9.667961772470118"><ele>16.0</ele><time>2026-04-30T11:42:45.996Z</time></trkpt><trkpt lat="40.637011637585175" lon="9.668166790200758"><ele>16.0</ele><time>2026-04-30T11:42:46.996Z</time></trkpt><trkpt lat="40.63707724306087" lon="9.668379155972133"><ele>16.0</ele><time>2026-04-30T11:42:47.996Z</time></trkpt><trkpt lat="40.63712243540626" lon="9.668608887128345"><ele>16.0</ele><time>2026-04-30T11:42:48.996Z</time></trkpt><trkpt lat="40.63718106668494" lon="9.66884137957438"><ele>16.0</ele><time>2026-04-30T11:42:49.996Z</time></trkpt><trkpt lat="40.637239640115226" lon="9.669076282132604"><ele>16.0</ele><time>2026-04-30T11:42:50.996Z</time></trkpt><trkpt lat="40.637300529753894" lon="9.669312934904147"><ele>16.0</ele><time>2026-04-30T11:42:51.996Z</time></trkpt><trkpt lat="40.6373782631417" lon="9.669542098914205"><ele>14.333333333333332</ele><time>2026-04-30T11:42:52.996Z</time></trkpt><trkpt lat="40.637426408202046" lon="9.669774466370272"><ele>12.666666666666666</ele><time>2026-04-30T11:42:53.996Z</time></trkpt><trkpt lat="40.637470520629414" lon="9.669990902114666"><ele>11.0</ele><time>2026-04-30T11:42:54.996Z</time></trkpt><trkpt lat="40.63750101660868" lon="9.67020157833153"><ele>10.0</ele><time>2026-04-30T11:42:55.996Z</time></trkpt><trkpt lat="40.637520419813406" lon="9.67041562389711"><ele>9.0</ele><time>2026-04-30T11:42:56.996Z</time></trkpt><trkpt lat="40.63751662608243" lon="9.67062438793948"><ele>8.0</ele><time>2026-04-30T11:42:57.996Z</time></trkpt><trkpt lat="40.63749351639584" lon="9.670833173899496"><ele>8.0</ele><time>2026-04-30T11:42:58.996Z</time></trkpt><trkpt lat="40.63742774452239" lon="9.671013419697914"><ele>8.0</ele><time>2026-04-30T11:42:59.996Z</time></trkpt><trkpt lat="40.637383423014064" lon="9.67119890341894"><ele>8.0</ele><time>2026-04-30T11:43:00.996Z</time></trkpt><trkpt lat="40.63729085029609" lon="9.671358604544562"><ele>7.333333333333333</ele><time>2026-04-30T11:43:01.996Z</time></trkpt><trkpt lat="40.63721400634532" lon="9.67154035065057"><ele>6.666666666666666</ele><time>2026-04-30T11:43:02.996Z</time></trkpt><trkpt lat="40.63710054993418" lon="9.671701406658752"><ele>6.0</ele><time>2026-04-30T11:43:03.996Z</time></trkpt><trkpt lat="40.63700105631748" lon="9.671882286702877"><ele>5.666666666666667</ele><time>2026-04-30T11:43:04.996Z</time></trkpt><trkpt lat="40.63690034194561" lon="9.67206550633738"><ele>5.333333333333334</ele><time>2026-04-30T11:43:05.996Z</time></trkpt><trkpt lat="40.63681168739433" lon="9.672263705620283"><ele>5.0</ele><time>2026-04-30T11:43:06.996Z</time></trkpt><trkpt lat="40.636708212813296" lon="9.672447498649866"><ele>5.0</ele><time>2026-04-30T11:43:07.996Z</time></trkpt><trkpt lat="40.636595851569346" lon="9.672614859896012"><ele>5.0</ele><time>2026-04-30T11:43:08.996Z</time></trkpt><trkpt lat="40.63649848523281" lon="9.672789394926957"><ele>5.0</ele><time>2026-04-30T11:43:09.995Z</time></trkpt><trkpt lat="40.636410634890886" lon="9.672969285023369"><ele>5.0</ele><time>2026-04-30T11:43:10.994Z</time></trkpt><trkpt lat="40.6363485909324" lon="9.673148262698428"><ele>5.0</ele><time>2026-04-30T11:43:11.994Z</time></trkpt><trkpt lat="40.636300145910674" lon="9.673301404847345"><ele>5.0</ele><time>2026-04-30T11:43:12.994Z</time></trkpt><trkpt lat="40.63625596570468" lon="9.673441065409813"><ele>5.0</ele><time>2026-04-30T11:43:13.994Z</time></trkpt><trkpt lat="40.636220353237036" lon="9.673553642063688"><ele>5.0</ele><time>2026-04-30T11:43:14.994Z</time></trkpt><trkpt lat="40.636193536036274" lon="9.67363841543973"><ele>5.0</ele><time>2026-04-30T11:43:15.994Z</time></trkpt><trkpt lat="40.63616167894079" lon="9.67374015616086"><ele>5.0</ele><time>2026-04-30T11:43:17.995Z</time></trkpt><trkpt lat="40.636124934813125" lon="9.673857499086658"><ele>5.0</ele><time>2026-04-30T11:43:19.994Z</time></trkpt><trkpt lat="40.63609631717992" lon="9.673948889951792"><ele>5.0</ele><time>2026-04-30T11:43:20.994Z</time></trkpt><trkpt lat="40.63605760413733" lon="9.674067473763417"><ele>5.0</ele><time>2026-04-30T11:43:21.994Z</time></trkpt><trkpt lat="40.6360085205133" lon="9.674208954823163"><ele>5.0</ele><time>2026-04-30T11:43:22.994Z</time></trkpt><trkpt lat="40.63596765407696" lon="9.674370205028318"><ele>5.0</ele><time>2026-04-30T11:43:23.994Z</time></trkpt><trkpt lat="40.63590340809347" lon="9.67453129520313"><ele>5.0</ele><time>2026-04-30T11:43:24.994Z</time></trkpt><trkpt lat="40.63584376600752" lon="9.674702446011075"><ele>5.0</ele><time>2026-04-30T11:43:25.994Z</time></trkpt><trkpt lat="40.63578675577514" lon="9.674869187968223"><ele>5.0</ele><time>2026-04-30T11:43:26.994Z</time></trkpt><trkpt lat="40.63573609691645" lon="9.675022336150159"><ele>5.0</ele><time>2026-04-30T11:43:27.994Z</time></trkpt><trkpt lat="40.63570521289068" lon="9.675166247958144"><ele>5.0</ele><time>2026-04-30T11:43:28.994Z</time></trkpt><trkpt lat="40.63569840279228" lon="9.675313576181816"><ele>5.0</ele><time>2026-04-30T11:43:29.994Z</time></trkpt><trkpt lat="40.63571623922188" lon="9.675466182591084"><ele>4.75</ele><time>2026-04-30T11:43:30.994Z</time></trkpt><trkpt lat="40.63575133872197" lon="9.675621255857283"><ele>4.5</ele><time>2026-04-30T11:43:31.995Z</time></trkpt><trkpt lat="40.63579263210737" lon="9.67578202925945"><ele>4.25</ele><time>2026-04-30T11:43:32.995Z</time></trkpt><trkpt lat="40.63584730277899" lon="9.675944767612398"><ele>4.0</ele><time>2026-04-30T11:43:33.995Z</time></trkpt><trkpt lat="40.63590420074166" lon="9.676117417850342"><ele>3.6666666666666665</ele><time>2026-04-30T11:43:34.995Z</time></trkpt><trkpt lat="40.63596824166086" lon="9.676304011589039"><ele>3.333333333333333</ele><time>2026-04-30T11:43:35.995Z</time></trkpt><trkpt lat="40.636035063735704" lon="9.676492696756835"><ele>3.0</ele><time>2026-04-30T11:43:36.995Z</time></trkpt><trkpt lat="40.63609674521665" lon="9.676687498150859"><ele>3.0</ele><time>2026-04-30T11:43:37.995Z</time></trkpt><trkpt lat="40.63616226037856" lon="9.676887946042743"><ele>3.0</ele><time>2026-04-30T11:43:38.995Z</time></trkpt><trkpt lat="40.63622939475584" lon="9.677107849141509"><ele>3.0</ele><time>2026-04-30T11:43:39.995Z</time></trkpt><trkpt lat="40.63630155764249" lon="9.677323091269548"><ele>3.0</ele><time>2026-04-30T11:43:40.995Z</time></trkpt><trkpt lat="40.63637287148249" lon="9.677535801001081"><ele>3.0</ele><time>2026-04-30T11:43:41.995Z</time></trkpt><trkpt lat="40.636441062112716" lon="9.677745715644274"><ele>3.0</ele><time>2026-04-30T11:43:42.995Z</time></trkpt><trkpt lat="40.63651105348254" lon="9.67795556077444"><ele>3.0</ele><time>2026-04-30T11:43:43.995Z</time></trkpt><trkpt lat="40.63658200760446" lon="9.678164922741129"><ele>3.0</ele><time>2026-04-30T11:43:44.995Z</time></trkpt><trkpt lat="40.636668292761215" lon="9.678375180869963"><ele>3.0</ele><time>2026-04-30T11:43:45.995Z</time></trkpt><trkpt lat="40.63673763161517" lon="9.678592936327922"><ele>3.0</ele><time>2026-04-30T11:43:46.995Z</time></trkpt><trkpt lat="40.63681288355717" lon="9.678811379483752"><ele>3.0</ele><time>2026-04-30T11:43:47.995Z</time></trkpt><trkpt lat="40.63688611023735" lon="9.679034307376993"><ele>3.0</ele><time>2026-04-30T11:43:48.995Z</time></trkpt><trkpt lat="40.636961239981005" lon="9.679256828743156"><ele>3.333333333333333</ele><time>2026-04-30T11:43:49.995Z</time></trkpt><trkpt lat="40.63703545963079" lon="9.679480051643331"><ele>3.6666666666666665</ele><time>2026-04-30T11:43:50.995Z</time></trkpt><trkpt lat="40.637108733719494" lon="9.679701806258366"><ele>4.0</ele><time>2026-04-30T11:43:51.995Z</time></trkpt><trkpt lat="40.63718178704076" lon="9.679924051007148"><ele>4.0</ele><time>2026-04-30T11:43:52.995Z</time></trkpt><trkpt lat="40.637251176907014" lon="9.68014551082576"><ele>4.0</ele><time>2026-04-30T11:43:53.995Z</time></trkpt><trkpt lat="40.63730926366657" lon="9.680373132109878"><ele>4.0</ele><time>2026-04-30T11:43:54.995Z</time></trkpt><trkpt lat="40.63735502279618" lon="9.68060191101795"><ele>4.0</ele><time>2026-04-30T11:43:55.995Z</time></trkpt><trkpt lat="40.63736773250695" lon="9.680843077239984"><ele>4.0</ele><time>2026-04-30T11:43:56.995Z</time></trkpt><trkpt lat="40.63739155319966" lon="9.681078507994783"><ele>4.0</ele><time>2026-04-30T11:43:57.995Z</time></trkpt><trkpt lat="40.637415877792975" lon="9.681318919098732"><ele>3.6666666666666665</ele><time>2026-04-30T11:43:58.995Z</time></trkpt><trkpt lat="40.637438681311124" lon="9.681557926959076"><ele>3.333333333333333</ele><time>2026-04-30T11:43:59.995Z</time></trkpt><trkpt lat="40.63745964514084" lon="9.681798850322819"><ele>3.0</ele><time>2026-04-30T11:44:00.995Z</time></trkpt><trkpt lat="40.637480485374994" lon="9.682028009614067"><ele>3.0</ele><time>2026-04-30T11:44:01.995Z</time></trkpt><trkpt lat="40.63750352610997" lon="9.682256192125571"><ele>3.0</ele><time>2026-04-30T11:44:02.995Z</time></trkpt><trkpt lat="40.63752626477427" lon="9.682467288745993"><ele>3.0</ele><time>2026-04-30T11:44:03.995Z</time></trkpt><trkpt lat="40.63756274934437" lon="9.682678969771858"><ele>3.0</ele><time>2026-04-30T11:44:04.995Z</time></trkpt><trkpt lat="40.6375811642673" lon="9.682902800092634"><ele>3.0</ele><time>2026-04-30T11:44:05.995Z</time></trkpt><trkpt lat="40.63760317133745" lon="9.683123844460916"><ele>3.0</ele><time>2026-04-30T11:44:06.995Z</time></trkpt><trkpt lat="40.63761140889052" lon="9.68334386138993"><ele>3.0</ele><time>2026-04-30T11:44:07.995Z</time></trkpt><trkpt lat="40.637646569206495" lon="9.683558957026246"><ele>3.0</ele><time>2026-04-30T11:44:08.995Z</time></trkpt><trkpt lat="40.63770898485394" lon="9.68377838429109"><ele>3.0</ele><time>2026-04-30T11:44:09.995Z</time></trkpt><trkpt lat="40.63779213479862" lon="9.683988180270624"><ele>3.0</ele><time>2026-04-30T11:44:10.995Z</time></trkpt><trkpt lat="40.63786061859518" lon="9.684204957498773"><ele>3.0</ele><time>2026-04-30T11:44:11.995Z</time></trkpt><trkpt lat="40.63792770475402" lon="9.684418035397972"><ele>3.0</ele><time>2026-04-30T11:44:12.995Z</time></trkpt><trkpt lat="40.63798666055561" lon="9.684629142920905"><ele>3.0</ele><time>2026-04-30T11:44:13.995Z</time></trkpt><trkpt lat="40.63803209894945" lon="9.684842545467525"><ele>3.0</ele><time>2026-04-30T11:44:14.995Z</time></trkpt><trkpt lat="40.6380601655922" lon="9.68506247779566"><ele>3.0</ele><time>2026-04-30T11:44:15.995Z</time></trkpt><trkpt lat="40.63805489977144" lon="9.685281372549968"><ele>3.333333333333333</ele><time>2026-04-30T11:44:16.995Z</time></trkpt><trkpt lat="40.63805750372675" lon="9.685509359650334"><ele>3.6666666666666665</ele><time>2026-04-30T11:44:17.995Z</time></trkpt><trkpt lat="40.638060565074305" lon="9.685753104868715"><ele>4.0</ele><time>2026-04-30T11:44:18.995Z</time></trkpt><trkpt lat="40.638064281386356" lon="9.686001646230388"><ele>4.333333333333333</ele><time>2026-04-30T11:44:19.995Z</time></trkpt><trkpt lat="40.638068058449775" lon="9.686254250620818"><ele>4.666666666666667</ele><time>2026-04-30T11:44:20.995Z</time></trkpt><trkpt lat="40.63807073001253" lon="9.68650952025063"><ele>5.0</ele><time>2026-04-30T11:44:21.995Z</time></trkpt><trkpt lat="40.638071800493634" lon="9.686766970276654"><ele>5.0</ele><time>2026-04-30T11:44:22.995Z</time></trkpt><trkpt lat="40.63807287119781" lon="9.687024474092881"><ele>5.0</ele><time>2026-04-30T11:44:23.995Z</time></trkpt><trkpt lat="40.63807393637808" lon="9.687280649352049"><ele>5.0</ele><time>2026-04-30T11:44:24.995Z</time></trkpt><trkpt lat="40.6380763428665" lon="9.687539486131683"><ele>4.333333333333334</ele><time>2026-04-30T11:44:25.995Z</time></trkpt><trkpt lat="40.638079534680024" lon="9.687792162035311"><ele>3.666666666666667</ele><time>2026-04-30T11:44:26.995Z</time></trkpt><trkpt lat="40.638082714501216" lon="9.688043888359296"><ele>3.0</ele><time>2026-04-30T11:44:27.995Z</time></trkpt><trkpt lat="40.63808591432601" lon="9.68829719837603"><ele>3.0</ele><time>2026-04-30T11:44:28.995Z</time></trkpt><trkpt lat="40.638089377632625" lon="9.688546198961259"><ele>3.0</ele><time>2026-04-30T11:44:29.995Z</time></trkpt><trkpt lat="40.638110768665925" lon="9.68878968585456"><ele>3.0</ele><time>2026-04-30T11:44:30.995Z</time></trkpt><trkpt lat="40.63811090924109" lon="9.689037840227982"><ele>2.6666666666666665</ele><time>2026-04-30T11:44:31.995Z</time></trkpt><trkpt lat="40.63810872026705" lon="9.689286860261848"><ele>2.333333333333333</ele><time>2026-04-30T11:44:32.995Z</time></trkpt><trkpt lat="40.63808049881396" lon="9.689531356577561"><ele>2.0</ele><time>2026-04-30T11:44:33.995Z</time></trkpt><trkpt lat="40.63806562214236" lon="9.689780225094049"><ele>2.0</ele><time>2026-04-30T11:44:34.995Z</time></trkpt><trkpt lat="40.6380505319481" lon="9.69003032548233"><ele>2.0</ele><time>2026-04-30T11:44:35.995Z</time></trkpt><trkpt lat="40.638035183145924" lon="9.690280630750024"><ele>2.0</ele><time>2026-04-30T11:44:36.995Z</time></trkpt><trkpt lat="40.63801996949645" lon="9.690528732188447"><ele>2.333333333333333</ele><time>2026-04-30T11:44:37.995Z</time></trkpt><trkpt lat="40.63802014483349" lon="9.69077342875217"><ele>2.6666666666666665</ele><time>2026-04-30T11:44:38.995Z</time></trkpt><trkpt lat="40.63799825220011" lon="9.691009268176211"><ele>3.0</ele><time>2026-04-30T11:44:39.995Z</time></trkpt><trkpt lat="40.637979108501966" lon="9.691244703630987"><ele>2.6666666666666665</ele><time>2026-04-30T11:44:40.995Z</time></trkpt><trkpt lat="40.63796562126125" lon="9.691479943848542"><ele>2.333333333333333</ele><time>2026-04-30T11:44:41.995Z</time></trkpt><trkpt lat="40.637961968226804" lon="9.691712219368798"><ele>2.0</ele><time>2026-04-30T11:44:42.995Z</time></trkpt><trkpt lat="40.63796842647075" lon="9.691945648489913"><ele>2.0</ele><time>2026-04-30T11:44:43.995Z</time></trkpt><trkpt lat="40.63798957784434" lon="9.692188575789062"><ele>2.0</ele><time>2026-04-30T11:44:44.995Z</time></trkpt><trkpt lat="40.63801725211256" lon="9.692438847434172"><ele>2.0</ele><time>2026-04-30T11:44:45.995Z</time></trkpt><trkpt lat="40.63804509848426" lon="9.692693813483682"><ele>2.333333333333333</ele><time>2026-04-30T11:44:46.995Z</time></trkpt><trkpt lat="40.63805965561065" lon="9.69295648716024"><ele>2.6666666666666665</ele><time>2026-04-30T11:44:47.995Z</time></trkpt><trkpt lat="40.63809971866757" lon="9.693220554397485"><ele>3.0</ele><time>2026-04-30T11:44:48.995Z</time></trkpt><trkpt lat="40.638122685443946" lon="9.693489853361994"><ele>3.333333333333333</ele><time>2026-04-30T11:44:49.995Z</time></trkpt><trkpt lat="40.638146106987236" lon="9.693757132139195"><ele>3.6666666666666665</ele><time>2026-04-30T11:44:50.995Z</time></trkpt><trkpt lat="40.63817518056198" lon="9.694021722832888"><ele>4.0</ele><time>2026-04-30T11:44:51.995Z</time></trkpt><trkpt lat="40.63820076100724" lon="9.694282893463296"><ele>3.0</ele><time>2026-04-30T11:44:52.995Z</time></trkpt><trkpt lat="40.638219075788506" lon="9.694542440422826"><ele>2.0</ele><time>2026-04-30T11:44:53.995Z</time></trkpt><trkpt lat="40.6382335705927" lon="9.694800343526929"><ele>1.0</ele><time>2026-04-30T11:44:54.995Z</time></trkpt><trkpt lat="40.6382593007645" lon="9.695052343385571"><ele>1.3333333333333333</ele><time>2026-04-30T11:44:55.995Z</time></trkpt><trkpt lat="40.6382831395741" lon="9.69530763061696"><ele>1.6666666666666665</ele><time>2026-04-30T11:44:56.995Z</time></trkpt><trkpt lat="40.63830651219829" lon="9.695562862274995"><ele>2.0</ele><time>2026-04-30T11:44:57.995Z</time></trkpt><trkpt lat="40.638334118092295" lon="9.6958159140906"><ele>2.0</ele><time>2026-04-30T11:44:58.995Z</time></trkpt><trkpt lat="40.63836116591286" lon="9.696065797723705"><ele>2.0</ele><time>2026-04-30T11:44:59.995Z</time></trkpt><trkpt lat="40.638387459312995" lon="9.69631835119947"><ele>2.0</ele><time>2026-04-30T11:45:00.995Z</time></trkpt><trkpt lat="40.63839773525696" lon="9.69657053660791"><ele>2.0</ele><time>2026-04-30T11:45:01.995Z</time></trkpt><trkpt lat="40.63842516765529" lon="9.696824543625336"><ele>2.0</ele><time>2026-04-30T11:45:02.995Z</time></trkpt><trkpt lat="40.63845586232245" lon="9.697074378287523"><ele>2.0</ele><time>2026-04-30T11:45:03.995Z</time></trkpt><trkpt lat="40.638493927358745" lon="9.697329809195885"><ele>1.6666666666666665</ele><time>2026-04-30T11:45:04.995Z</time></trkpt><trkpt lat="40.638533633017246" lon="9.697583178302786"><ele>1.3333333333333333</ele><time>2026-04-30T11:45:05.995Z</time></trkpt><trkpt lat="40.6385748482812" lon="9.69784003378549"><ele>1.0</ele><time>2026-04-30T11:45:06.995Z</time></trkpt><trkpt lat="40.63863228891044" lon="9.698088828162934"><ele>1.6666666666666665</ele><time>2026-04-30T11:45:07.995Z</time></trkpt><trkpt lat="40.63867237477523" lon="9.698345911881066"><ele>2.3333333333333335</ele><time>2026-04-30T11:45:08.995Z</time></trkpt><trkpt lat="40.63871399733417" lon="9.698605097772964"><ele>3.0</ele><time>2026-04-30T11:45:09.995Z</time></trkpt><trkpt lat="40.63875593237845" lon="9.698863580525906"><ele>3.0</ele><time>2026-04-30T11:45:10.995Z</time></trkpt><trkpt lat="40.6387983911285" lon="9.699117117190571"><ele>3.0</ele><time>2026-04-30T11:45:11.995Z</time></trkpt><trkpt lat="40.638829073784756" lon="9.6993780889928"><ele>3.0</ele><time>2026-04-30T11:45:12.995Z</time></trkpt><trkpt lat="40.638873812496236" lon="9.699637251883889"><ele>3.0</ele><time>2026-04-30T11:45:13.995Z</time></trkpt><trkpt lat="40.63891528544714" lon="9.699896256488863"><ele>3.0</ele><time>2026-04-30T11:45:14.995Z</time></trkpt><trkpt lat="40.63895966366412" lon="9.700159792746263"><ele>3.0</ele><time>2026-04-30T11:45:15.994Z</time></trkpt><trkpt lat="40.639005065634905" lon="9.700426132815167"><ele>3.0</ele><time>2026-04-30T11:45:16.994Z</time></trkpt><trkpt lat="40.639053916019776" lon="9.700694836205859"><ele>3.0</ele><time>2026-04-30T11:45:17.994Z</time></trkpt><trkpt lat="40.63909708243057" lon="9.700963650352566"><ele>3.0</ele><time>2026-04-30T11:45:18.995Z</time></trkpt><trkpt lat="40.63914316145571" lon="9.701228631597653"><ele>3.0</ele><time>2026-04-30T11:45:19.994Z</time></trkpt><trkpt lat="40.63918597856796" lon="9.701495819652953"><ele>3.0</ele><time>2026-04-30T11:45:20.994Z</time></trkpt><trkpt lat="40.63922777879145" lon="9.701763652964383"><ele>3.0</ele><time>2026-04-30T11:45:21.994Z</time></trkpt><trkpt lat="40.63926976332724" lon="9.702027888935383"><ele>2.6666666666666665</ele><time>2026-04-30T11:45:22.994Z</time></trkpt><trkpt lat="40.639310205920374" lon="9.702284397970706"><ele>2.333333333333333</ele><time>2026-04-30T11:45:23.994Z</time></trkpt><trkpt lat="40.63934396285664" lon="9.702519829352447"><ele>2.0</ele><time>2026-04-30T11:45:24.994Z</time></trkpt><trkpt lat="40.639374696741946" lon="9.702738270986782"><ele>2.333333333333333</ele><time>2026-04-30T11:45:25.994Z</time></trkpt><trkpt lat="40.6394104856316" lon="9.702946380764514"><ele>2.6666666666666665</ele><time>2026-04-30T11:45:26.994Z</time></trkpt><trkpt lat="40.639450917316765" lon="9.703150192219733"><ele>3.0</ele><time>2026-04-30T11:45:27.994Z</time></trkpt><trkpt lat="40.63949304403033" lon="9.70333193183274"><ele>2.25</ele><time>2026-04-30T11:45:28.994Z</time></trkpt><trkpt lat="40.639548496031914" lon="9.703495756988929"><ele>1.5</ele><time>2026-04-30T11:45:29.994Z</time></trkpt><trkpt lat="40.63962069309548" lon="9.70364832646182"><ele>0.75</ele><time>2026-04-30T11:45:30.994Z</time></trkpt><trkpt lat="40.639707537204856" lon="9.70380413340501"><ele>0.0</ele><time>2026-04-30T11:45:31.994Z</time></trkpt><trkpt lat="40.6398088250498" lon="9.703971459409553"><ele>0.0</ele><time>2026-04-30T11:45:32.994Z</time></trkpt><trkpt lat="40.63991270492129" lon="9.704151026903588"><ele>0.0</ele><time>2026-04-30T11:45:33.994Z</time></trkpt><trkpt lat="40.64002359098009" lon="9.704344619697507"><ele>0.0</ele><time>2026-04-30T11:45:34.994Z</time></trkpt><trkpt lat="40.64013772631191" lon="9.70453979299149"><ele>1.0</ele><time>2026-04-30T11:45:35.994Z</time></trkpt><trkpt lat="40.64025744702774" lon="9.704740111346668"><ele>2.0</ele><time>2026-04-30T11:45:36.994Z</time></trkpt><trkpt lat="40.64037873672204" lon="9.704937889053848"><ele>3.0</ele><time>2026-04-30T11:45:37.994Z</time></trkpt><trkpt lat="40.64050104395182" lon="9.705141060946644"><ele>3.0</ele><time>2026-04-30T11:45:38.994Z</time></trkpt><trkpt lat="40.640622671369194" lon="9.705346710657562"><ele>3.0</ele><time>2026-04-30T11:45:39.994Z</time></trkpt><trkpt lat="40.6407422371897" lon="9.70555046122339"><ele>3.0</ele><time>2026-04-30T11:45:40.994Z</time></trkpt><trkpt lat="40.64085814547044" lon="9.705754347419166"><ele>3.0</ele><time>2026-04-30T11:45:41.994Z</time></trkpt><trkpt lat="40.640974668414835" lon="9.705960832457835"><ele>3.0</ele><time>2026-04-30T11:45:42.994Z</time></trkpt><trkpt lat="40.64109801097381" lon="9.706173016881278"><ele>3.0</ele><time>2026-04-30T11:45:43.994Z</time></trkpt><trkpt lat="40.64123301720077" lon="9.706386444670702"><ele>2.6666666666666665</ele><time>2026-04-30T11:45:44.994Z</time></trkpt><trkpt lat="40.641369139523555" lon="9.70660322896371"><ele>2.333333333333333</ele><time>2026-04-30T11:45:45.994Z</time></trkpt><trkpt lat="40.64150276054844" lon="9.706818235257401"><ele>2.0</ele><time>2026-04-30T11:45:46.994Z</time></trkpt><trkpt lat="40.64163681007475" lon="9.707037030144475"><ele>1.6666666666666665</ele><time>2026-04-30T11:45:47.994Z</time></trkpt><trkpt lat="40.641771184906226" lon="9.707258597638807"><ele>1.3333333333333333</ele><time>2026-04-30T11:45:48.994Z</time></trkpt><trkpt lat="40.64191059252272" lon="9.70748224330355"><ele>1.0</ele><time>2026-04-30T11:45:49.994Z</time></trkpt><trkpt lat="40.642031575076544" lon="9.707716526156627"><ele>1.6666666666666665</ele><time>2026-04-30T11:45:50.994Z</time></trkpt><trkpt lat="40.64216253406947" lon="9.70793297908609"><ele>2.3333333333333335</ele><time>2026-04-30T11:45:51.994Z</time></trkpt><trkpt lat="40.64229133581433" lon="9.708149068759033"><ele>3.0</ele><time>2026-04-30T11:45:52.994Z</time></trkpt><trkpt lat="40.64242249818233" lon="9.708369650761576"><ele>2.6666666666666665</ele><time>2026-04-30T11:45:53.994Z</time></trkpt><trkpt lat="40.64256610828801" lon="9.708577386562283"><ele>2.333333333333333</ele><time>2026-04-30T11:45:54.994Z</time></trkpt><trkpt lat="40.64269270118891" lon="9.708794925671725"><ele>2.0</ele><time>2026-04-30T11:45:55.994Z</time></trkpt><trkpt lat="40.642814743548016" lon="9.709001986805253"><ele>1.6666666666666665</ele><time>2026-04-30T11:45:56.994Z</time></trkpt><trkpt lat="40.642923507136224" lon="9.709192529432634"><ele>1.3333333333333333</ele><time>2026-04-30T11:45:57.994Z</time></trkpt><trkpt lat="40.643019711846826" lon="9.709384252176408"><ele>1.0</ele><time>2026-04-30T11:45:58.994Z</time></trkpt><trkpt lat="40.64308595437899" lon="9.709595040628434"><ele>0.6666666666666666</ele><time>2026-04-30T11:45:59.994Z</time></trkpt><trkpt lat="40.643143472031944" lon="9.70980148529923"><ele>0.3333333333333333</ele><time>2026-04-30T11:46:00.994Z</time></trkpt><trkpt lat="40.64319283288195" lon="9.709999083811256"><ele>0.0</ele><time>2026-04-30T11:46:01.994Z</time></trkpt><trkpt lat="40.64324036578019" lon="9.710174140360666"><ele>0.0</ele><time>2026-04-30T11:46:02.994Z</time></trkpt><trkpt lat="40.64329759962694" lon="9.710296305848807"><ele>0.0</ele><time>2026-04-30T11:46:03.994Z</time></trkpt><trkpt lat="40.64333323437234" lon="9.710379568575533"><ele>0.0</ele><time>2026-04-30T11:46:04.994Z</time></trkpt><trkpt lat="40.643430633168784" lon="9.710454356350038"><ele>0.0</ele><time>2026-04-30T11:46:06.994Z</time></trkpt><trkpt lat="40.64349571426143" lon="9.710458498873527"><ele>0.0</ele><time>2026-04-30T11:46:07.994Z</time></trkpt><trkpt lat="40.64356901693273" lon="9.710436379309337"><ele>0.0</ele><time>2026-04-30T11:46:08.994Z</time></trkpt><trkpt lat="40.64365555493726" lon="9.710393763553574"><ele>0.75</ele><time>2026-04-30T11:46:09.994Z</time></trkpt><trkpt lat="40.64375453445247" lon="9.710342286892086"><ele>1.5</ele><time>2026-04-30T11:46:10.994Z</time></trkpt><trkpt lat="40.643864289156795" lon="9.710290039062585"><ele>2.25</ele><time>2026-04-30T11:46:11.994Z</time></trkpt><trkpt lat="40.64397803222282" lon="9.710244744559239"><ele>3.0</ele><time>2026-04-30T11:46:12.994Z</time></trkpt><trkpt lat="40.64408626101043" lon="9.710210335031608"><ele>3.0</ele><time>2026-04-30T11:46:13.994Z</time></trkpt><trkpt lat="40.64417778831034" lon="9.710206546057206"><ele>3.0</ele><time>2026-04-30T11:46:14.994Z</time></trkpt><trkpt lat="40.64425551106853" lon="9.71023603975991"><ele>3.0</ele><time>2026-04-30T11:46:15.994Z</time></trkpt><trkpt lat="40.64432479479175" lon="9.71029138006438"><ele>3.0</ele><time>2026-04-30T11:46:16.994Z</time></trkpt><trkpt lat="40.64439322409114" lon="9.710374461325252"><ele>3.0</ele><time>2026-04-30T11:46:17.994Z</time></trkpt><trkpt lat="40.64446066999" lon="9.710488590823173"><ele>3.5</ele><time>2026-04-30T11:46:18.994Z</time></trkpt><trkpt lat="40.64453110583322" lon="9.710610165520292"><ele>4.0</ele><time>2026-04-30T11:46:19.994Z</time></trkpt><trkpt lat="40.64461059814138" lon="9.71074200051143"><ele>4.5</ele><time>2026-04-30T11:46:20.994Z</time></trkpt><trkpt lat="40.64469803868766" lon="9.710877132423914"><ele>5.0</ele><time>2026-04-30T11:46:21.994Z</time></trkpt><trkpt lat="40.644792731462836" lon="9.711017334123806"><ele>5.2</ele><time>2026-04-30T11:46:22.994Z</time></trkpt><trkpt lat="40.64487967286947" lon="9.711158119277673"><ele>5.4</ele><time>2026-04-30T11:46:23.994Z</time></trkpt><trkpt lat="40.64494439886041" lon="9.711281658035018"><ele>5.6</ele><time>2026-04-30T11:46:24.994Z</time></trkpt><trkpt lat="40.64498683601067" lon="9.711387389844765"><ele>5.8</ele><time>2026-04-30T11:46:25.994Z</time></trkpt><trkpt lat="40.645005096957085" lon="9.711486159420367"><ele>6.0</ele><time>2026-04-30T11:46:26.994Z</time></trkpt><trkpt lat="40.64500520614979" lon="9.711586579416682"><ele>6.0</ele><time>2026-04-30T11:46:27.994Z</time></trkpt><trkpt lat="40.64498295262418" lon="9.711666765608998"><ele>6.0</ele><time>2026-04-30T11:46:28.994Z</time></trkpt><trkpt lat="40.64496722194595" lon="9.711769247746544"><ele>6.0</ele><time>2026-04-30T11:46:30.994Z</time></trkpt><trkpt lat="40.64492570119507" lon="9.711854892382778"><ele>6.0</ele><time>2026-04-30T11:46:32.994Z</time></trkpt><trkpt lat="40.645046852322885" lon="9.711978223557109"><ele>6.0</ele><time>2026-04-30T11:46:33.994Z</time></trkpt><trkpt lat="40.645111515466226" lon="9.712059940453504"><ele>5.8</ele><time>2026-04-30T11:46:34.994Z</time></trkpt><trkpt lat="40.64518397680429" lon="9.712154889551876"><ele>5.6</ele><time>2026-04-30T11:46:35.994Z</time></trkpt><trkpt lat="40.64525957240773" lon="9.712255926177324"><ele>5.4</ele><time>2026-04-30T11:46:36.994Z</time></trkpt><trkpt lat="40.64533399058771" lon="9.712362549381654"><ele>5.2</ele><time>2026-04-30T11:46:37.994Z</time></trkpt><trkpt lat="40.64541710566809" lon="9.712471607964105"><ele>5.0</ele><time>2026-04-30T11:46:38.994Z</time></trkpt><trkpt lat="40.64550407427648" lon="9.71258647691945"><ele>4.75</ele><time>2026-04-30T11:46:39.994Z</time></trkpt><trkpt lat="40.64558773384866" lon="9.712699970344405"><ele>4.5</ele><time>2026-04-30T11:46:40.994Z</time></trkpt><trkpt lat="40.64566615947474" lon="9.71280993952132"><ele>4.25</ele><time>2026-04-30T11:46:41.994Z</time></trkpt><trkpt lat="40.64575052718606" lon="9.712920747942752"><ele>4.0</ele><time>2026-04-30T11:46:42.994Z</time></trkpt><trkpt lat="40.645836060003255" lon="9.713034659719241"><ele>4.0</ele><time>2026-04-30T11:46:43.994Z</time></trkpt><trkpt lat="40.64591674896857" lon="9.713155750892849"><ele>4.0</ele><time>2026-04-30T11:46:44.994Z</time></trkpt><trkpt lat="40.64600546134722" lon="9.713270152726828"><ele>4.0</ele><time>2026-04-30T11:46:45.994Z</time></trkpt><trkpt lat="40.64609433679528" lon="9.713389649781274"><ele>4.0</ele><time>2026-04-30T11:46:46.994Z</time></trkpt><trkpt lat="40.646178032442506" lon="9.713512743806351"><ele>4.5</ele><time>2026-04-30T11:46:47.994Z</time></trkpt><trkpt lat="40.64626230173519" lon="9.713643600782413"><ele>5.0</ele><time>2026-04-30T11:46:48.994Z</time></trkpt><trkpt lat="40.6463432630505" lon="9.713784374832006"><ele>5.5</ele><time>2026-04-30T11:46:49.994Z</time></trkpt><trkpt lat="40.646421412605434" lon="9.713932948752824"><ele>6.0</ele><time>2026-04-30T11:46:50.994Z</time></trkpt><trkpt lat="40.646505344295164" lon="9.71409456167632"><ele>6.0</ele><time>2026-04-30T11:46:51.994Z</time></trkpt><trkpt lat="40.64658019784907" lon="9.714267098196922"><ele>6.0</ele><time>2026-04-30T11:46:52.994Z</time></trkpt><trkpt lat="40.64664700568501" lon="9.714462274440477"><ele>6.0</ele><time>2026-04-30T11:46:53.994Z</time></trkpt><trkpt lat="40.64673071418066" lon="9.714654612156894"><ele>5.333333333333333</ele><time>2026-04-30T11:46:54.994Z</time></trkpt><trkpt lat="40.64681594811336" lon="9.714853840909436"><ele>4.666666666666666</ele><time>2026-04-30T11:46:55.994Z</time></trkpt><trkpt lat="40.64690049570993" lon="9.715052361880552"><ele>4.0</ele><time>2026-04-30T11:46:56.994Z</time></trkpt><trkpt lat="40.64698801676723" lon="9.715257864683503"><ele>4.0</ele><time>2026-04-30T11:46:57.994Z</time></trkpt><trkpt lat="40.64707601707317" lon="9.715464493023026"><ele>4.0</ele><time>2026-04-30T11:46:58.994Z</time></trkpt><trkpt lat="40.6471617368246" lon="9.715665766246095"><ele>4.0</ele><time>2026-04-30T11:46:59.994Z</time></trkpt><trkpt lat="40.64725335839972" lon="9.715880897992953"><ele>3.6666666666666665</ele><time>2026-04-30T11:47:00.994Z</time></trkpt><trkpt lat="40.647356695233036" lon="9.716086909105298"><ele>3.333333333333333</ele><time>2026-04-30T11:47:01.994Z</time></trkpt><trkpt lat="40.64744853902604" lon="9.716307927475757"><ele>3.0</ele><time>2026-04-30T11:47:02.994Z</time></trkpt><trkpt lat="40.64754077700743" lon="9.716525695502275"><ele>3.0</ele><time>2026-04-30T11:47:03.994Z</time></trkpt><trkpt lat="40.647629356165886" lon="9.716748073318621"><ele>3.0</ele><time>2026-04-30T11:47:04.994Z</time></trkpt><trkpt lat="40.6477239478625" lon="9.716975564590044"><ele>3.0</ele><time>2026-04-30T11:47:05.994Z</time></trkpt><trkpt lat="40.64782343921281" lon="9.717202448583215"><ele>4.0</ele><time>2026-04-30T11:47:06.994Z</time></trkpt><trkpt lat="40.64792008950412" lon="9.717428534020714"><ele>5.0</ele><time>2026-04-30T11:47:07.994Z</time></trkpt><trkpt lat="40.64801889897166" lon="9.717656313545733"><ele>6.0</ele><time>2026-04-30T11:47:08.994Z</time></trkpt><trkpt lat="40.64811993515113" lon="9.717888883865333"><ele>6.0</ele><time>2026-04-30T11:47:09.994Z</time></trkpt><trkpt lat="40.648219713232905" lon="9.718121962583991"><ele>6.0</ele><time>2026-04-30T11:47:10.994Z</time></trkpt><trkpt lat="40.64832191116468" lon="9.71835471301198"><ele>6.0</ele><time>2026-04-30T11:47:11.994Z</time></trkpt><trkpt lat="40.64841215728954" lon="9.71859220320004"><ele>6.0</ele><time>2026-04-30T11:47:12.994Z</time></trkpt><trkpt lat="40.64851186645537" lon="9.71882883659485"><ele>6.0</ele><time>2026-04-30T11:47:13.994Z</time></trkpt><trkpt lat="40.648612536320506" lon="9.71906186289475"><ele>6.0</ele><time>2026-04-30T11:47:14.994Z</time></trkpt><trkpt lat="40.64871880395976" lon="9.719296581993456"><ele>6.0</ele><time>2026-04-30T11:47:15.994Z</time></trkpt><trkpt lat="40.64882320248765" lon="9.719528401267869"><ele>6.0</ele><time>2026-04-30T11:47:16.994Z</time></trkpt><trkpt lat="40.64892900308775" lon="9.71975826292706"><ele>6.0</ele><time>2026-04-30T11:47:17.994Z</time></trkpt><trkpt lat="40.64904145410253" lon="9.719986060066963"><ele>6.0</ele><time>2026-04-30T11:47:18.994Z</time></trkpt><trkpt lat="40.64914753942406" lon="9.720214483384321"><ele>6.0</ele><time>2026-04-30T11:47:19.994Z</time></trkpt><trkpt lat="40.64925017469141" lon="9.720441087810144"><ele>6.0</ele><time>2026-04-30T11:47:20.995Z</time></trkpt><trkpt lat="40.64935642793602" lon="9.720666546206289"><ele>6.0</ele><time>2026-04-30T11:47:21.994Z</time></trkpt><trkpt lat="40.64946074989818" lon="9.720891947321265"><ele>6.0</ele><time>2026-04-30T11:47:22.994Z</time></trkpt><trkpt lat="40.64956621952895" lon="9.721116962409624"><ele>6.0</ele><time>2026-04-30T11:47:23.994Z</time></trkpt><trkpt lat="40.64967272085646" lon="9.721339379254523"><ele>6.0</ele><time>2026-04-30T11:47:24.994Z</time></trkpt><trkpt lat="40.64977257868295" lon="9.721565477074746"><ele>6.0</ele><time>2026-04-30T11:47:25.994Z</time></trkpt><trkpt lat="40.64986345123128" lon="9.72178962750215"><ele>6.0</ele><time>2026-04-30T11:47:26.995Z</time></trkpt><trkpt lat="40.6499652930699" lon="9.722007844364636"><ele>5.666666666666667</ele><time>2026-04-30T11:47:27.994Z</time></trkpt><trkpt lat="40.650068599649835" lon="9.722223310973954"><ele>5.333333333333334</ele><time>2026-04-30T11:47:28.994Z</time></trkpt><trkpt lat="40.650171767761" lon="9.722446846725157"><ele>5.0</ele><time>2026-04-30T11:47:29.994Z</time></trkpt><trkpt lat="40.65027295039989" lon="9.722658444055874"><ele>5.0</ele><time>2026-04-30T11:47:30.994Z</time></trkpt><trkpt lat="40.650371643236" lon="9.722867457664305"><ele>5.0</ele><time>2026-04-30T11:47:31.994Z</time></trkpt><trkpt lat="40.65046440132787" lon="9.723066443270424"><ele>5.0</ele><time>2026-04-30T11:47:32.994Z</time></trkpt><trkpt lat="40.65055224134201" lon="9.723249837677598"><ele>5.0</ele><time>2026-04-30T11:47:33.994Z</time></trkpt><trkpt lat="40.65063271686553" lon="9.723416973331883"><ele>5.0</ele><time>2026-04-30T11:47:34.994Z</time></trkpt><trkpt lat="40.65069414744134" lon="9.723583070792744"><ele>5.0</ele><time>2026-04-30T11:47:35.994Z</time></trkpt><trkpt lat="40.650767745557786" lon="9.723725004304171"><ele>5.0</ele><time>2026-04-30T11:47:36.994Z</time></trkpt><trkpt lat="40.65084495148643" lon="9.723851854591317"><ele>4.5</ele><time>2026-04-30T11:47:37.994Z</time></trkpt><trkpt lat="40.65093302055208" lon="9.723962314894385"><ele>4.0</ele><time>2026-04-30T11:47:38.994Z</time></trkpt><trkpt lat="40.651051735303795" lon="9.724045200090627"><ele>3.5</ele><time>2026-04-30T11:47:39.994Z</time></trkpt><trkpt lat="40.651169912760594" lon="9.724126959835875"><ele>3.0</ele><time>2026-04-30T11:47:40.994Z</time></trkpt><trkpt lat="40.6513038069503" lon="9.724198487374172"><ele>2.6666666666666665</ele><time>2026-04-30T11:47:41.994Z</time></trkpt><trkpt lat="40.65145899292151" lon="9.724273380671205"><ele>2.333333333333333</ele><time>2026-04-30T11:47:42.994Z</time></trkpt><trkpt lat="40.65161806598418" lon="9.72434416106902"><ele>2.0</ele><time>2026-04-30T11:47:43.994Z</time></trkpt><trkpt lat="40.65178520499963" lon="9.724416325672639"><ele>1.5</ele><time>2026-04-30T11:47:44.994Z</time></trkpt><trkpt lat="40.6519416166698" lon="9.724482680677838"><ele>1.0</ele><time>2026-04-30T11:47:45.994Z</time></trkpt><trkpt lat="40.652081814862704" lon="9.724553938253342"><ele>0.5</ele><time>2026-04-30T11:47:46.994Z</time></trkpt><trkpt lat="40.652193621800244" lon="9.724637590928815"><ele>0.0</ele><time>2026-04-30T11:47:47.994Z</time></trkpt><trkpt lat="40.652363122549765" lon="9.72469129099036"><ele>0.0</ele><time>2026-04-30T11:47:48.994Z</time></trkpt><trkpt lat="40.65206345070779" lon="9.724479146688148"><ele>0.0</ele><time>2026-04-30T11:47:49.994Z</time></trkpt><trkpt lat="40.6521520339451" lon="9.724509583605174"><ele>0.0</ele><time>2026-04-30T11:47:51.994Z</time></trkpt><trkpt lat="40.652218072394874" lon="9.724308904247678"><ele>0.16666666666666666</ele><time>2026-04-30T11:47:54.994Z</time></trkpt><trkpt lat="40.65222694195772" lon="9.724223561518201"><ele>0.3333333333333333</ele><time>2026-04-30T11:47:55.994Z</time></trkpt><trkpt lat="40.6522362362193" lon="9.724127099221718"><ele>0.5</ele><time>2026-04-30T11:47:56.994Z</time></trkpt><trkpt lat="40.65225032348344" lon="9.724018739116861"><ele>0.6666666666666666</ele><time>2026-04-30T11:47:57.994Z</time></trkpt><trkpt lat="40.652254528885855" lon="9.723901918462024"><ele>0.8333333333333333</ele><time>2026-04-30T11:47:58.994Z</time></trkpt><trkpt lat="40.652272290459855" lon="9.723783277652851"><ele>1.0</ele><time>2026-04-30T11:47:59.994Z</time></trkpt><trkpt lat="40.65226589724639" lon="9.72366267176388"><ele>1.0</ele><time>2026-04-30T11:48:00.994Z</time></trkpt><trkpt lat="40.65235681191693" lon="9.723572022391826"><ele>1.0</ele><time>2026-04-30T11:48:01.994Z</time></trkpt><trkpt lat="40.65242416819769" lon="9.723489423955092"><ele>1.0</ele><time>2026-04-30T11:48:02.994Z</time></trkpt><trkpt lat="40.65250397570041" lon="9.723415068558298"><ele>1.0</ele><time>2026-04-30T11:48:03.994Z</time></trkpt><trkpt lat="40.65259603272374" lon="9.723342575377222"><ele>1.0</ele><time>2026-04-30T11:48:04.994Z</time></trkpt><trkpt lat="40.65269578010773" lon="9.7232725861632"><ele>1.25</ele><time>2026-04-30T11:48:05.994Z</time></trkpt><trkpt lat="40.652802591416865" lon="9.72319560225598"><ele>1.5</ele><time>2026-04-30T11:48:06.994Z</time></trkpt><trkpt lat="40.652911844395774" lon="9.723117038227697"><ele>1.75</ele><time>2026-04-30T11:48:07.994Z</time></trkpt><trkpt lat="40.653024249768414" lon="9.723035106171153"><ele>2.0</ele><time>2026-04-30T11:48:08.994Z</time></trkpt><trkpt lat="40.65313911020034" lon="9.722951776610577"><ele>2.0</ele><time>2026-04-30T11:48:09.994Z</time></trkpt><trkpt lat="40.65325699688452" lon="9.722867971026751"><ele>2.0</ele><time>2026-04-30T11:48:10.994Z</time></trkpt><trkpt lat="40.653396613877874" lon="9.722791626207892"><ele>2.0</ele><time>2026-04-30T11:48:11.994Z</time></trkpt><trkpt lat="40.65353204186463" lon="9.722741473241497"><ele>2.0</ele><time>2026-04-30T11:48:12.994Z</time></trkpt><trkpt lat="40.65367087352932" lon="9.722705716940078"><ele>2.6666666666666665</ele><time>2026-04-30T11:48:13.994Z</time></trkpt><trkpt lat="40.65381672603376" lon="9.7226850190445"><ele>3.333333333333333</ele><time>2026-04-30T11:48:14.994Z</time></trkpt><trkpt lat="40.65396726085703" lon="9.72268084787075"><ele>4.0</ele><time>2026-04-30T11:48:15.994Z</time></trkpt><trkpt lat="40.65412526746345" lon="9.722690096595555"><ele>4.0</ele><time>2026-04-30T11:48:16.994Z</time></trkpt><trkpt lat="40.65428170617663" lon="9.7227078762989"><ele>4.0</ele><time>2026-04-30T11:48:17.994Z</time></trkpt><trkpt lat="40.65444548764259" lon="9.72271833413742"><ele>4.0</ele><time>2026-04-30T11:48:18.994Z</time></trkpt><trkpt lat="40.65461772738465" lon="9.72272768853199"><ele>4.666666666666666</ele><time>2026-04-30T11:48:19.994Z</time></trkpt><trkpt lat="40.654791560007304" lon="9.72273661919325"><ele>5.333333333333333</ele><time>2026-04-30T11:48:20.994Z</time></trkpt><trkpt lat="40.65496961624161" lon="9.722737314616944"><ele>6.0</ele><time>2026-04-30T11:48:21.994Z</time></trkpt><trkpt lat="40.65515265139289" lon="9.722730960633422"><ele>7.0</ele><time>2026-04-30T11:48:22.994Z</time></trkpt><trkpt lat="40.65533816069111" lon="9.722715804390512"><ele>8.0</ele><time>2026-04-30T11:48:23.994Z</time></trkpt><trkpt lat="40.65552986890526" lon="9.72269551593791"><ele>9.0</ele><time>2026-04-30T11:48:24.994Z</time></trkpt><trkpt lat="40.65572057522302" lon="9.722666760817031"><ele>9.0</ele><time>2026-04-30T11:48:25.994Z</time></trkpt><trkpt lat="40.655916070774715" lon="9.722634873697384"><ele>9.0</ele><time>2026-04-30T11:48:26.994Z</time></trkpt><trkpt lat="40.65611346667639" lon="9.722593364380636"><ele>9.0</ele><time>2026-04-30T11:48:27.994Z</time></trkpt><trkpt lat="40.656313809658315" lon="9.722548829305222"><ele>8.0</ele><time>2026-04-30T11:48:28.994Z</time></trkpt><trkpt lat="40.65651631850647" lon="9.722491122297622"><ele>7.0</ele><time>2026-04-30T11:48:29.994Z</time></trkpt><trkpt lat="40.65672058777337" lon="9.72242639081172"><ele>6.0</ele><time>2026-04-30T11:48:30.994Z</time></trkpt><trkpt lat="40.65692667480788" lon="9.722351759387534"><ele>5.333333333333333</ele><time>2026-04-30T11:48:31.994Z</time></trkpt><trkpt lat="40.6571292923474" lon="9.72226943704761"><ele>4.666666666666666</ele><time>2026-04-30T11:48:32.994Z</time></trkpt><trkpt lat="40.657330772027414" lon="9.722176602239223"><ele>4.0</ele><time>2026-04-30T11:48:33.994Z</time></trkpt><trkpt lat="40.65753074786829" lon="9.722075858055232"><ele>4.0</ele><time>2026-04-30T11:48:34.994Z</time></trkpt><trkpt lat="40.657728210173275" lon="9.721965737785055"><ele>4.0</ele><time>2026-04-30T11:48:35.994Z</time></trkpt><trkpt lat="40.65792673667386" lon="9.721847490117105"><ele>4.0</ele><time>2026-04-30T11:48:36.994Z</time></trkpt><trkpt lat="40.658119083512844" lon="9.721723821047673"><ele>4.333333333333333</ele><time>2026-04-30T11:48:37.994Z</time></trkpt><trkpt lat="40.658311678628664" lon="9.72158672278103"><ele>4.666666666666667</ele><time>2026-04-30T11:48:38.994Z</time></trkpt><trkpt lat="40.65850261148889" lon="9.721443651830924"><ele>5.0</ele><time>2026-04-30T11:48:39.994Z</time></trkpt><trkpt lat="40.65869051093149" lon="9.721287965991092"><ele>5.0</ele><time>2026-04-30T11:48:40.994Z</time></trkpt><trkpt lat="40.65887245404181" lon="9.721127515546511"><ele>5.0</ele><time>2026-04-30T11:48:41.994Z</time></trkpt><trkpt lat="40.65904649616008" lon="9.720956899653636"><ele>5.0</ele><time>2026-04-30T11:48:42.994Z</time></trkpt><trkpt lat="40.659222086699415" lon="9.720776475558552"><ele>5.666666666666667</ele><time>2026-04-30T11:48:43.994Z</time></trkpt><trkpt lat="40.659391000331595" lon="9.720593213168081"><ele>6.333333333333334</ele><time>2026-04-30T11:48:44.994Z</time></trkpt><trkpt lat="40.659557471215045" lon="9.720402158754956"><ele>7.0</ele><time>2026-04-30T11:48:45.994Z</time></trkpt><trkpt lat="40.65972003860476" lon="9.720204193627525"><ele>7.666666666666667</ele><time>2026-04-30T11:48:46.994Z</time></trkpt><trkpt lat="40.65987980996277" lon="9.720004781507324"><ele>8.333333333333334</ele><time>2026-04-30T11:48:47.994Z</time></trkpt><trkpt lat="40.660035499579955" lon="9.719796364864589"><ele>9.0</ele><time>2026-04-30T11:48:48.994Z</time></trkpt><trkpt lat="40.66019064682422" lon="9.719583229521245"><ele>8.666666666666666</ele><time>2026-04-30T11:48:49.994Z</time></trkpt><trkpt lat="40.660343877148485" lon="9.719372173655273"><ele>8.333333333333332</ele><time>2026-04-30T11:48:50.994Z</time></trkpt><trkpt lat="40.66049997234218" lon="9.719160134126737"><ele>8.0</ele><time>2026-04-30T11:48:51.994Z</time></trkpt><trkpt lat="40.66065428367633" lon="9.718950456892237"><ele>8.0</ele><time>2026-04-30T11:48:52.994Z</time></trkpt><trkpt lat="40.660808585369594" lon="9.718738891366996"><ele>8.0</ele><time>2026-04-30T11:48:53.994Z</time></trkpt><trkpt lat="40.66096223979627" lon="9.718527756360528"><ele>8.0</ele><time>2026-04-30T11:48:54.994Z</time></trkpt><trkpt lat="40.66111479995547" lon="9.718315871009395"><ele>9.0</ele><time>2026-04-30T11:48:55.994Z</time></trkpt><trkpt lat="40.66126849379264" lon="9.718103264137323"><ele>10.0</ele><time>2026-04-30T11:48:56.994Z</time></trkpt><trkpt lat="40.66142301004369" lon="9.717893658252724"><ele>11.0</ele><time>2026-04-30T11:48:57.994Z</time></trkpt><trkpt lat="40.66157871441603" lon="9.717680823677616"><ele>11.333333333333332</ele><time>2026-04-30T11:48:58.994Z</time></trkpt><trkpt lat="40.661734413879216" lon="9.717468011401097"><ele>11.666666666666666</ele><time>2026-04-30T11:48:59.994Z</time></trkpt><trkpt lat="40.66188837635066" lon="9.717255589538368"><ele>12.0</ele><time>2026-04-30T11:49:00.994Z</time></trkpt><trkpt lat="40.66204111461406" lon="9.717042254703683"><ele>12.666666666666668</ele><time>2026-04-30T11:49:01.994Z</time></trkpt><trkpt lat="40.66219508141433" lon="9.716831075470049"><ele>13.333333333333334</ele><time>2026-04-30T11:49:02.994Z</time></trkpt><trkpt lat="40.66234712505402" lon="9.716617569148706"><ele>14.0</ele><time>2026-04-30T11:49:03.994Z</time></trkpt><trkpt lat="40.662499132847614" lon="9.71640613486366"><ele>14.0</ele><time>2026-04-30T11:49:04.994Z</time></trkpt><trkpt lat="40.662653154722506" lon="9.716201738401743"><ele>14.0</ele><time>2026-04-30T11:49:05.994Z</time></trkpt><trkpt lat="40.66280983683486" lon="9.715999840554295"><ele>14.0</ele><time>2026-04-30T11:49:06.994Z</time></trkpt><trkpt lat="40.662969203587174" lon="9.715803230488346"><ele>16.0</ele><time>2026-04-30T11:49:07.994Z</time></trkpt><trkpt lat="40.66330059623438" lon="9.71542818526117"><ele>18.0</ele><time>2026-04-30T11:49:09.994Z</time></trkpt><trkpt lat="40.663473618612095" lon="9.715249667294339"><ele>19.0</ele><time>2026-04-30T11:49:10.994Z</time></trkpt><trkpt lat="40.663649797193195" lon="9.715077842736884"><ele>20.0</ele><time>2026-04-30T11:49:11.994Z</time></trkpt><trkpt lat="40.66383175963612" lon="9.714907205308856"><ele>21.0</ele><time>2026-04-30T11:49:12.994Z</time></trkpt><trkpt lat="40.66401621080183" lon="9.714741324300467"><ele>21.0</ele><time>2026-04-30T11:49:13.994Z</time></trkpt><trkpt lat="40.66420540767076" lon="9.714580742873167"><ele>21.0</ele><time>2026-04-30T11:49:14.994Z</time></trkpt><trkpt lat="40.66439791321623" lon="9.71442917523279"><ele>21.0</ele><time>2026-04-30T11:49:15.994Z</time></trkpt><trkpt lat="40.664592856708715" lon="9.714283753183512"><ele>20.333333333333332</ele><time>2026-04-30T11:49:16.994Z</time></trkpt><trkpt lat="40.66479117270723" lon="9.714145609603642"><ele>19.666666666666664</ele><time>2026-04-30T11:49:17.994Z</time></trkpt><trkpt lat="40.66498672215711" lon="9.714016393361655"><ele>19.0</ele><time>2026-04-30T11:49:18.994Z</time></trkpt><trkpt lat="40.665186750525635" lon="9.713889876182433"><ele>19.666666666666664</ele><time>2026-04-30T11:49:19.994Z</time></trkpt><trkpt lat="40.66538253397605" lon="9.713770365235685"><ele>20.333333333333332</ele><time>2026-04-30T11:49:20.994Z</time></trkpt><trkpt lat="40.66558294407743" lon="9.71365600525259"><ele>21.0</ele><time>2026-04-30T11:49:21.994Z</time></trkpt><trkpt lat="40.66578441348917" lon="9.713553250067296"><ele>21.0</ele><time>2026-04-30T11:49:22.994Z</time></trkpt><trkpt lat="40.66598976786905" lon="9.713458169181447"><ele>21.0</ele><time>2026-04-30T11:49:23.994Z</time></trkpt><trkpt lat="40.66619803218319" lon="9.713370599973175"><ele>21.0</ele><time>2026-04-30T11:49:24.994Z</time></trkpt><trkpt lat="40.66641288586589" lon="9.71329104300078"><ele>20.5</ele><time>2026-04-30T11:49:25.994Z</time></trkpt><trkpt lat="40.666632619337676" lon="9.713215466622488"><ele>20.0</ele><time>2026-04-30T11:49:26.995Z</time></trkpt><trkpt lat="40.666852950856345" lon="9.713147352144922"><ele>22.5</ele><time>2026-04-30T11:49:27.995Z</time></trkpt><trkpt lat="40.66707505877483" lon="9.713083456659295"><ele>25.0</ele><time>2026-04-30T11:49:28.994Z</time></trkpt><trkpt lat="40.667297022159346" lon="9.713029851225293"><ele>25.0</ele><time>2026-04-30T11:49:29.994Z</time></trkpt><trkpt lat="40.667515047876805" lon="9.712983869275755"><ele>25.0</ele><time>2026-04-30T11:49:30.994Z</time></trkpt><trkpt lat="40.66773900078236" lon="9.712945608346173"><ele>25.0</ele><time>2026-04-30T11:49:31.994Z</time></trkpt><trkpt lat="40.6679605657822" lon="9.712916420943362"><ele>25.5</ele><time>2026-04-30T11:49:32.994Z</time></trkpt><trkpt lat="40.66818923388295" lon="9.71289438018463"><ele>26.0</ele><time>2026-04-30T11:49:33.994Z</time></trkpt><trkpt lat="40.668415604644885" lon="9.712883851928217"><ele>29.0</ele><time>2026-04-30T11:49:34.994Z</time></trkpt><trkpt lat="40.66863853258077" lon="9.712875232241224"><ele>32.0</ele><time>2026-04-30T11:49:35.994Z</time></trkpt><trkpt lat="40.66886764048471" lon="9.712873398557134"><ele>32.0</ele><time>2026-04-30T11:49:36.994Z</time></trkpt><trkpt lat="40.66909535396705" lon="9.71287567660295"><ele>32.0</ele><time>2026-04-30T11:49:37.995Z</time></trkpt><trkpt lat="40.66932470385668" lon="9.71289053131905"><ele>35.5</ele><time>2026-04-30T11:49:38.994Z</time></trkpt><trkpt lat="40.66955265941054" lon="9.712904935083932"><ele>39.0</ele><time>2026-04-30T11:49:39.994Z</time></trkpt><trkpt lat="40.669783120447555" lon="9.712919169703596"><ele>39.0</ele><time>2026-04-30T11:49:40.994Z</time></trkpt><trkpt lat="40.67001449111027" lon="9.712931673314165"><ele>39.0</ele><time>2026-04-30T11:49:41.994Z</time></trkpt><trkpt lat="40.67024703956959" lon="9.712948639791891"><ele>45.5</ele><time>2026-04-30T11:49:42.994Z</time></trkpt><trkpt lat="40.67047919828243" lon="9.712968181727796"><ele>52.0</ele><time>2026-04-30T11:49:43.994Z</time></trkpt><trkpt lat="40.67070234291962" lon="9.713040715945624"><ele>52.0</ele><time>2026-04-30T11:49:44.994Z</time></trkpt><trkpt lat="40.67092407983446" lon="9.713111406896092"><ele>52.0</ele><time>2026-04-30T11:49:45.994Z</time></trkpt><trkpt lat="40.67113932698925" lon="9.713187730931176"><ele>59.0</ele><time>2026-04-30T11:49:46.994Z</time></trkpt><trkpt lat="40.67136164240611" lon="9.713280059037302"><ele>66.0</ele><time>2026-04-30T11:49:47.994Z</time></trkpt><trkpt lat="40.67160602361644" lon="9.713390046060985"><ele>20.0</ele><time>2026-04-30T11:49:49.137Z</time></trkpt><trkpt lat="40.68170641806706" lon="9.718237397570654"><ele>20.0</ele><time>2026-04-30T11:50:34.995Z</time></trkpt><trkpt lat="40.68191961309591" lon="9.718273494990255"><ele>20.0</ele><time>2026-04-30T11:50:35.995Z</time></trkpt><trkpt lat="40.68212449189787" lon="9.718317748546795"><ele>20.0</ele><time>2026-04-30T11:50:36.995Z</time></trkpt><trkpt lat="40.68233648429921" lon="9.718342277138044"><ele>18.666666666666668</ele><time>2026-04-30T11:50:37.995Z</time></trkpt><trkpt lat="40.68255709091043" lon="9.718359713226311"><ele>17.333333333333332</ele><time>2026-04-30T11:50:38.995Z</time></trkpt><trkpt lat="40.6827674013756" lon="9.718364460247122"><ele>16.0</ele><time>2026-04-30T11:50:39.995Z</time></trkpt><trkpt lat="40.68298204294962" lon="9.718370076066668"><ele>15.0</ele><time>2026-04-30T11:50:40.995Z</time></trkpt><trkpt lat="40.68319424610127" lon="9.71836611929554"><ele>14.0</ele><time>2026-04-30T11:50:41.995Z</time></trkpt><trkpt lat="40.6834049213375" lon="9.71835543761504"><ele>13.0</ele><time>2026-04-30T11:50:42.995Z</time></trkpt><trkpt lat="40.68361308484494" lon="9.718342154409557"><ele>12.333333333333332</ele><time>2026-04-30T11:50:43.995Z</time></trkpt><trkpt lat="40.683821895807604" lon="9.718324784116232"><ele>11.666666666666666</ele><time>2026-04-30T11:50:44.995Z</time></trkpt><trkpt lat="40.6840150149119" lon="9.718285360210155"><ele>11.0</ele><time>2026-04-30T11:50:45.995Z</time></trkpt><trkpt lat="40.68422034807282" lon="9.718253121073023"><ele>10.666666666666666</ele><time>2026-04-30T11:50:46.995Z</time></trkpt><trkpt lat="40.684430025803145" lon="9.718212922269206"><ele>10.333333333333334</ele><time>2026-04-30T11:50:47.995Z</time></trkpt><trkpt lat="40.684638105739275" lon="9.718169779594827"><ele>10.0</ele><time>2026-04-30T11:50:48.995Z</time></trkpt><trkpt lat="40.684847116211635" lon="9.718124477161503"><ele>10.0</ele><time>2026-04-30T11:50:49.995Z</time></trkpt><trkpt lat="40.68505777961139" lon="9.718072761884963"><ele>10.0</ele><time>2026-04-30T11:50:50.995Z</time></trkpt><trkpt lat="40.685268848837836" lon="9.71801290835915"><ele>10.0</ele><time>2026-04-30T11:50:51.995Z</time></trkpt><trkpt lat="40.68548071132171" lon="9.717947791540858"><ele>9.666666666666668</ele><time>2026-04-30T11:50:52.995Z</time></trkpt><trkpt lat="40.685689838090255" lon="9.717882641362296"><ele>9.333333333333334</ele><time>2026-04-30T11:50:53.995Z</time></trkpt><trkpt lat="40.68590571183364" lon="9.717809831133213"><ele>9.0</ele><time>2026-04-30T11:50:54.995Z</time></trkpt><trkpt lat="40.686114983773635" lon="9.717728513084424"><ele>8.666666666666666</ele><time>2026-04-30T11:50:55.995Z</time></trkpt><trkpt lat="40.68632624687951" lon="9.717639423350361"><ele>8.333333333333332</ele><time>2026-04-30T11:50:56.995Z</time></trkpt><trkpt lat="40.68653401301625" lon="9.717543411467346"><ele>8.0</ele><time>2026-04-30T11:50:57.995Z</time></trkpt><trkpt lat="40.68674070267057" lon="9.717439771627886"><ele>7.333333333333333</ele><time>2026-04-30T11:50:58.995Z</time></trkpt><trkpt lat="40.68694339306061" lon="9.71733230566939"><ele>6.666666666666666</ele><time>2026-04-30T11:50:59.995Z</time></trkpt><trkpt lat="40.68714776571517" lon="9.717216095902467"><ele>6.0</ele><time>2026-04-30T11:51:00.995Z</time></trkpt><trkpt lat="40.687352115820005" lon="9.717100581088522"><ele>6.0</ele><time>2026-04-30T11:51:01.995Z</time></trkpt><trkpt lat="40.687551340211705" lon="9.716976461706615"><ele>6.0</ele><time>2026-04-30T11:51:02.995Z</time></trkpt><trkpt lat="40.6877490273224" lon="9.716843979386454"><ele>6.0</ele><time>2026-04-30T11:51:03.995Z</time></trkpt><trkpt lat="40.68794791258123" lon="9.716708680116902"><ele>5.5</ele><time>2026-04-30T11:51:04.995Z</time></trkpt><trkpt lat="40.68814619840074" lon="9.716566891072247"><ele>5.0</ele><time>2026-04-30T11:51:05.995Z</time></trkpt><trkpt lat="40.688344344894396" lon="9.716419077342879"><ele>5.0</ele><time>2026-04-30T11:51:06.995Z</time></trkpt><trkpt lat="40.688539612716625" lon="9.716265213410576"><ele>5.0</ele><time>2026-04-30T11:51:07.995Z</time></trkpt><trkpt lat="40.688734303652716" lon="9.716103252347898"><ele>5.0</ele><time>2026-04-30T11:51:08.995Z</time></trkpt><trkpt lat="40.688927172476596" lon="9.71593577232042"><ele>5.0</ele><time>2026-04-30T11:51:09.995Z</time></trkpt><trkpt lat="40.689119953783205" lon="9.715763678038424"><ele>5.0</ele><time>2026-04-30T11:51:10.995Z</time></trkpt><trkpt lat="40.68931158707493" lon="9.715586597557786"><ele>5.0</ele><time>2026-04-30T11:51:11.995Z</time></trkpt><trkpt lat="40.68950076198715" lon="9.715411380092227"><ele>5.0</ele><time>2026-04-30T11:51:12.995Z</time></trkpt><trkpt lat="40.68968896118534" lon="9.71523240126491"><ele>5.0</ele><time>2026-04-30T11:51:13.995Z</time></trkpt><trkpt lat="40.689872217053704" lon="9.715054150991008"><ele>5.0</ele><time>2026-04-30T11:51:14.995Z</time></trkpt><trkpt lat="40.690052575278855" lon="9.714877775106775"><ele>5.0</ele><time>2026-04-30T11:51:15.995Z</time></trkpt><trkpt lat="40.69022898880585" lon="9.71470259952349"><ele>5.0</ele><time>2026-04-30T11:51:16.995Z</time></trkpt><trkpt lat="40.69040584198512" lon="9.714527665112046"><ele>5.0</ele><time>2026-04-30T11:51:17.995Z</time></trkpt><trkpt lat="40.690579773384144" lon="9.714357148101572"><ele>5.0</ele><time>2026-04-30T11:51:18.995Z</time></trkpt><trkpt lat="40.690752581603114" lon="9.714187024695441"><ele>5.0</ele><time>2026-04-30T11:51:19.995Z</time></trkpt><trkpt lat="40.69092389909807" lon="9.714018907913175"><ele>5.0</ele><time>2026-04-30T11:51:20.995Z</time></trkpt><trkpt lat="40.69109219427912" lon="9.713852273467753"><ele>5.0</ele><time>2026-04-30T11:51:21.995Z</time></trkpt><trkpt lat="40.69126002693005" lon="9.71368728462099"><ele>5.0</ele><time>2026-04-30T11:51:22.995Z</time></trkpt><trkpt lat="40.69142800213544" lon="9.713529378731758"><ele>5.333333333333334</ele><time>2026-04-30T11:51:23.995Z</time></trkpt><trkpt lat="40.69159498996205" lon="9.713384853625374"><ele>5.666666666666667</ele><time>2026-04-30T11:51:24.995Z</time></trkpt><trkpt lat="40.691766976836114" lon="9.713256156746404"><ele>6.0</ele><time>2026-04-30T11:51:25.995Z</time></trkpt><trkpt lat="40.69194186266978" lon="9.713145500259085"><ele>5.333333333333333</ele><time>2026-04-30T11:51:26.995Z</time></trkpt><trkpt lat="40.69212110415646" lon="9.713049745201568"><ele>4.666666666666666</ele><time>2026-04-30T11:51:27.995Z</time></trkpt><trkpt lat="40.69230879055736" lon="9.712969293908685"><ele>4.0</ele><time>2026-04-30T11:51:28.995Z</time></trkpt><trkpt lat="40.69249932770502" lon="9.712899001497073"><ele>4.0</ele><time>2026-04-30T11:51:29.995Z</time></trkpt><trkpt lat="40.692697004256516" lon="9.712835544441868"><ele>4.0</ele><time>2026-04-30T11:51:30.995Z</time></trkpt><trkpt lat="40.692898110754484" lon="9.712786944573834"><ele>4.0</ele><time>2026-04-30T11:51:31.995Z</time></trkpt><trkpt lat="40.69310436711005" lon="9.712757714538133"><ele>4.0</ele><time>2026-04-30T11:51:32.994Z</time></trkpt><trkpt lat="40.693311958099535" lon="9.712740910439837"><ele>4.0</ele><time>2026-04-30T11:51:33.994Z</time></trkpt><trkpt lat="40.69352664743146" lon="9.712727892608866"><ele>4.0</ele><time>2026-04-30T11:51:34.994Z</time></trkpt><trkpt lat="40.693740539482626" lon="9.712714688070681"><ele>4.333333333333333</ele><time>2026-04-30T11:51:35.995Z</time></trkpt><trkpt lat="40.693951552654475" lon="9.712698817844892"><ele>4.666666666666667</ele><time>2026-04-30T11:51:36.995Z</time></trkpt><trkpt lat="40.694162426850504" lon="9.712671584426388"><ele>5.0</ele><time>2026-04-30T11:51:37.995Z</time></trkpt><trkpt lat="40.69437465576433" lon="9.712631691449275"><ele>4.333333333333334</ele><time>2026-04-30T11:51:38.994Z</time></trkpt><trkpt lat="40.694583792812175" lon="9.712578454567772"><ele>3.666666666666667</ele><time>2026-04-30T11:51:39.994Z</time></trkpt><trkpt lat="40.69479803430238" lon="9.712513627814293"><ele>3.0</ele><time>2026-04-30T11:51:40.995Z</time></trkpt><trkpt lat="40.69501083754372" lon="9.71244363686683"><ele>3.0</ele><time>2026-04-30T11:51:41.994Z</time></trkpt><trkpt lat="40.6952223520975" lon="9.712365731978558"><ele>3.0</ele><time>2026-04-30T11:51:42.994Z</time></trkpt><trkpt lat="40.695428634948875" lon="9.712273748907352"><ele>3.0</ele><time>2026-04-30T11:51:43.994Z</time></trkpt><trkpt lat="40.69563368577602" lon="9.71217078906687"><ele>3.333333333333333</ele><time>2026-04-30T11:51:44.995Z</time></trkpt><trkpt lat="40.69584049805842" lon="9.712057672843736"><ele>3.6666666666666665</ele><time>2026-04-30T11:51:45.995Z</time></trkpt><trkpt lat="40.69604005350343" lon="9.71193016607473"><ele>4.0</ele><time>2026-04-30T11:51:46.995Z</time></trkpt><trkpt lat="40.69623517414985" lon="9.711792292917883"><ele>6.0</ele><time>2026-04-30T11:51:47.995Z</time></trkpt><trkpt lat="40.69642646763885" lon="9.71164375455613"><ele>8.0</ele><time>2026-04-30T11:51:48.995Z</time></trkpt><trkpt lat="40.696613358835066" lon="9.71148304103871"><ele>10.0</ele><time>2026-04-30T11:51:49.995Z</time></trkpt><trkpt lat="40.6967970855562" lon="9.711311221918175"><ele>10.0</ele><time>2026-04-30T11:51:50.995Z</time></trkpt><trkpt lat="40.69697717472876" lon="9.711128840246491"><ele>10.0</ele><time>2026-04-30T11:51:51.995Z</time></trkpt><trkpt lat="40.69714833544208" lon="9.710933537293231"><ele>11.5</ele><time>2026-04-30T11:51:52.995Z</time></trkpt><trkpt lat="40.69731436335037" lon="9.710727903398514"><ele>13.0</ele><time>2026-04-30T11:51:53.995Z</time></trkpt><trkpt lat="40.69747422853924" lon="9.710508579739498"><ele>13.0</ele><time>2026-04-30T11:51:54.995Z</time></trkpt><trkpt lat="40.69762706141528" lon="9.710284387202746"><ele>13.0</ele><time>2026-04-30T11:51:55.995Z</time></trkpt><trkpt lat="40.69777847783382" lon="9.710047049957756"><ele>14.0</ele><time>2026-04-30T11:51:56.995Z</time></trkpt><trkpt lat="40.69791775845347" lon="9.709797861241757"><ele>15.0</ele><time>2026-04-30T11:51:57.995Z</time></trkpt><trkpt lat="40.69805069239128" lon="9.709544922715327"><ele>16.0</ele><time>2026-04-30T11:51:58.995Z</time></trkpt><trkpt lat="40.69816975572732" lon="9.709284103373472"><ele>17.0</ele><time>2026-04-30T11:51:59.995Z</time></trkpt><trkpt lat="40.69827978138725" lon="9.709016085856856"><ele>17.0</ele><time>2026-04-30T11:52:00.995Z</time></trkpt><trkpt lat="40.69838311077266" lon="9.70873746129709"><ele>17.0</ele><time>2026-04-30T11:52:01.995Z</time></trkpt><trkpt lat="40.69847583150081" lon="9.70845306975049"><ele>16.0</ele><time>2026-04-30T11:52:02.995Z</time></trkpt><trkpt lat="40.698555432570025" lon="9.708166237585385"><ele>15.0</ele><time>2026-04-30T11:52:03.995Z</time></trkpt><trkpt lat="40.698628250889236" lon="9.707879622269454"><ele>11.5</ele><time>2026-04-30T11:52:04.995Z</time></trkpt><trkpt lat="40.69869059299961" lon="9.707591674069816"><ele>8.0</ele><time>2026-04-30T11:52:05.995Z</time></trkpt><trkpt lat="40.698747275933194" lon="9.707298901806634"><ele>8.0</ele><time>2026-04-30T11:52:06.995Z</time></trkpt><trkpt lat="40.69879596582005" lon="9.70700730820384"><ele>8.0</ele><time>2026-04-30T11:52:07.995Z</time></trkpt><trkpt lat="40.69883554676627" lon="9.706716918058508"><ele>8.0</ele><time>2026-04-30T11:52:08.995Z</time></trkpt><trkpt lat="40.698859464347045" lon="9.706429354102966"><ele>8.0</ele><time>2026-04-30T11:52:09.995Z</time></trkpt><trkpt lat="40.69887064181799" lon="9.706134659343453"><ele>8.0</ele><time>2026-04-30T11:52:10.995Z</time></trkpt><trkpt lat="40.698874285052085" lon="9.705831431644025"><ele>8.0</ele><time>2026-04-30T11:52:11.995Z</time></trkpt><trkpt lat="40.69887573965822" lon="9.705525091254582"><ele>8.0</ele><time>2026-04-30T11:52:12.995Z</time></trkpt><trkpt lat="40.69887866235382" lon="9.705214773015902"><ele>8.5</ele><time>2026-04-30T11:52:13.995Z</time></trkpt><trkpt lat="40.69888230050732" lon="9.704904886942373"><ele>9.0</ele><time>2026-04-30T11:52:14.995Z</time></trkpt><trkpt lat="40.69888813688418" lon="9.704596544254029"><ele>9.0</ele><time>2026-04-30T11:52:15.995Z</time></trkpt><trkpt lat="40.698896231244774" lon="9.704289958594158"><ele>9.0</ele><time>2026-04-30T11:52:16.995Z</time></trkpt><trkpt lat="40.698908221774424" lon="9.703985292489783"><ele>9.0</ele><time>2026-04-30T11:52:17.995Z</time></trkpt><trkpt lat="40.69892404618037" lon="9.703681225200032"><ele>9.0</ele><time>2026-04-30T11:52:18.995Z</time></trkpt><trkpt lat="40.69894911284585" lon="9.703377743557677"><ele>10.5</ele><time>2026-04-30T11:52:19.995Z</time></trkpt><trkpt lat="40.69898227327226" lon="9.70307377028541"><ele>12.0</ele><time>2026-04-30T11:52:20.995Z</time></trkpt><trkpt lat="40.69902437256826" lon="9.702771189185846"><ele>12.5</ele><time>2026-04-30T11:52:21.995Z</time></trkpt><trkpt lat="40.699073894564506" lon="9.702472430315112"><ele>13.0</ele><time>2026-04-30T11:52:22.995Z</time></trkpt><trkpt lat="40.69913019796541" lon="9.702177305842174"><ele>13.5</ele><time>2026-04-30T11:52:23.995Z</time></trkpt><trkpt lat="40.69918968368761" lon="9.701887071922298"><ele>14.0</ele><time>2026-04-30T11:52:24.995Z</time></trkpt><trkpt lat="40.69925473112115" lon="9.701601929175705"><ele>14.0</ele><time>2026-04-30T11:52:25.995Z</time></trkpt><trkpt lat="40.69932580882884" lon="9.70132034837051"><ele>14.0</ele><time>2026-04-30T11:52:26.995Z</time></trkpt><trkpt lat="40.69940439927803" lon="9.701041174668816"><ele>14.0</ele><time>2026-04-30T11:52:27.995Z</time></trkpt><trkpt lat="40.69949102113171" lon="9.700767746707978"><ele>14.0</ele><time>2026-04-30T11:52:28.995Z</time></trkpt><trkpt lat="40.69958333715534" lon="9.700497784586572"><ele>14.0</ele><time>2026-04-30T11:52:29.995Z</time></trkpt><trkpt lat="40.69968131474369" lon="9.70022890484072"><ele>15.5</ele><time>2026-04-30T11:52:30.995Z</time></trkpt><trkpt lat="40.699785272332136" lon="9.699962111282908"><ele>17.0</ele><time>2026-04-30T11:52:31.995Z</time></trkpt><trkpt lat="40.69989823980568" lon="9.699703411234829"><ele>17.0</ele><time>2026-04-30T11:52:32.995Z</time></trkpt><trkpt lat="40.70001755120164" lon="9.69944811732207"><ele>17.0</ele><time>2026-04-30T11:52:33.995Z</time></trkpt><trkpt lat="40.70014843537062" lon="9.6991991507179"><ele>16.0</ele><time>2026-04-30T11:52:34.995Z</time></trkpt><trkpt lat="40.70028810259506" lon="9.698961543991487"><ele>15.0</ele><time>2026-04-30T11:52:35.995Z</time></trkpt><trkpt lat="40.70043323556342" lon="9.69873239138955"><ele>16.0</ele><time>2026-04-30T11:52:36.995Z</time></trkpt><trkpt lat="40.70058137690253" lon="9.698509451092447"><ele>17.0</ele><time>2026-04-30T11:52:37.995Z</time></trkpt><trkpt lat="40.70073295822046" lon="9.698288296781255"><ele>17.0</ele><time>2026-04-30T11:52:38.995Z</time></trkpt><trkpt lat="40.70088980051224" lon="9.698070037669686"><ele>17.0</ele><time>2026-04-30T11:52:39.995Z</time></trkpt><trkpt lat="40.70105382960663" lon="9.697858185670308"><ele>19.0</ele><time>2026-04-30T11:52:40.995Z</time></trkpt><trkpt lat="40.701224466198774" lon="9.697657815787004"><ele>21.0</ele><time>2026-04-30T11:52:41.995Z</time></trkpt><trkpt lat="40.701396698678586" lon="9.697462793933065"><ele>21.0</ele><time>2026-04-30T11:52:42.995Z</time></trkpt><trkpt lat="40.70157322015182" lon="9.697276483666265"><ele>21.0</ele><time>2026-04-30T11:52:43.995Z</time></trkpt><trkpt lat="40.701752676820405" lon="9.697098162828564"><ele>22.666666666666664</ele><time>2026-04-30T11:52:44.995Z</time></trkpt><trkpt lat="40.701937149420594" lon="9.69693052951608"><ele>24.333333333333332</ele><time>2026-04-30T11:52:45.995Z</time></trkpt><trkpt lat="40.7021241839827" lon="9.69676903394738"><ele>26.0</ele><time>2026-04-30T11:52:46.995Z</time></trkpt><trkpt lat="40.70231645778141" lon="9.69661301152152"><ele>27.5</ele><time>2026-04-30T11:52:47.995Z</time></trkpt><trkpt lat="40.70251527538241" lon="9.69646402595318"><ele>29.0</ele><time>2026-04-30T11:52:48.995Z</time></trkpt><trkpt lat="40.70271974438584" lon="9.696323316335791"><ele>28.5</ele><time>2026-04-30T11:52:49.995Z</time></trkpt><trkpt lat="40.70292783435852" lon="9.696190918770043"><ele>28.0</ele><time>2026-04-30T11:52:50.995Z</time></trkpt><trkpt lat="40.70314134299311" lon="9.696069420531332"><ele>27.0</ele><time>2026-04-30T11:52:51.995Z</time></trkpt><trkpt lat="40.7033571271026" lon="9.695958224263657"><ele>26.0</ele><time>2026-04-30T11:52:52.995Z</time></trkpt><trkpt lat="40.70357509294104" lon="9.695853135591202"><ele>23.0</ele><time>2026-04-30T11:52:53.995Z</time></trkpt><trkpt lat="40.703798335857165" lon="9.695756550505996"><ele>20.0</ele><time>2026-04-30T11:52:54.995Z</time></trkpt><trkpt lat="40.70402151725656" lon="9.695675151738673"><ele>20.0</ele><time>2026-04-30T11:52:55.995Z</time></trkpt><trkpt lat="40.70424767140514" lon="9.695605046639805"><ele>20.0</ele><time>2026-04-30T11:52:56.995Z</time></trkpt><trkpt lat="40.70447261737742" lon="9.695540303711333"><ele>19.0</ele><time>2026-04-30T11:52:57.995Z</time></trkpt><trkpt lat="40.70469982781286" lon="9.695481728570297"><ele>18.0</ele><time>2026-04-30T11:52:58.995Z</time></trkpt><trkpt lat="40.70492924674608" lon="9.695424651650018"><ele>18.0</ele><time>2026-04-30T11:52:59.995Z</time></trkpt><trkpt lat="40.705159964704386" lon="9.695370430020303"><ele>18.0</ele><time>2026-04-30T11:53:00.995Z</time></trkpt><trkpt lat="40.70538536304169" lon="9.695317155736042"><ele>17.5</ele><time>2026-04-30T11:53:01.995Z</time></trkpt><trkpt lat="40.705614697752736" lon="9.695265131457003"><ele>17.0</ele><time>2026-04-30T11:53:02.995Z</time></trkpt><trkpt lat="40.70584590105289" lon="9.6952117966255"><ele>18.0</ele><time>2026-04-30T11:53:03.995Z</time></trkpt><trkpt lat="40.70607658040615" lon="9.695158622342449"><ele>19.0</ele><time>2026-04-30T11:53:04.995Z</time></trkpt><trkpt lat="40.70630751743182" lon="9.695103711246139"><ele>19.5</ele><time>2026-04-30T11:53:05.995Z</time></trkpt><trkpt lat="40.70653758799644" lon="9.695045647100919"><ele>20.0</ele><time>2026-04-30T11:53:06.995Z</time></trkpt><trkpt lat="40.70676672045" lon="9.694983015934206"><ele>20.5</ele><time>2026-04-30T11:53:07.995Z</time></trkpt><trkpt lat="40.70699204475607" lon="9.694913370830307"><ele>21.0</ele><time>2026-04-30T11:53:08.995Z</time></trkpt><trkpt lat="40.70721399698654" lon="9.694833068268357"><ele>21.0</ele><time>2026-04-30T11:53:09.995Z</time></trkpt><trkpt lat="40.70743162541468" lon="9.69474226449731"><ele>21.0</ele><time>2026-04-30T11:53:10.995Z</time></trkpt><trkpt lat="40.70764325394631" lon="9.694640086985702"><ele>22.5</ele><time>2026-04-30T11:53:11.995Z</time></trkpt><trkpt lat="40.707851623597854" lon="9.694527160052962"><ele>24.0</ele><time>2026-04-30T11:53:12.995Z</time></trkpt><trkpt lat="40.708054429782266" lon="9.694398449075075"><ele>27.0</ele><time>2026-04-30T11:53:13.995Z</time></trkpt><trkpt lat="40.70825547082551" lon="9.6942610124892"><ele>30.0</ele><time>2026-04-30T11:53:14.995Z</time></trkpt><trkpt lat="40.708453914362984" lon="9.694113454099146"><ele>31.5</ele><time>2026-04-30T11:53:15.995Z</time></trkpt><trkpt lat="40.70864649720075" lon="9.693949847604296"><ele>33.0</ele><time>2026-04-30T11:53:16.995Z</time></trkpt><trkpt lat="40.708832408878685" lon="9.693774051557902"><ele>31.5</ele><time>2026-04-30T11:53:17.995Z</time></trkpt><trkpt lat="40.70901752518075" lon="9.693585355806192"><ele>30.0</ele><time>2026-04-30T11:53:18.995Z</time></trkpt><trkpt lat="40.7091996138563" lon="9.693380936069449"><ele>30.0</ele><time>2026-04-30T11:53:19.995Z</time></trkpt><trkpt lat="40.70937503435704" lon="9.693169496533352"><ele>30.0</ele><time>2026-04-30T11:53:20.995Z</time></trkpt><trkpt lat="40.70954419803919" lon="9.692955137298306"><ele>24.5</ele><time>2026-04-30T11:53:21.995Z</time></trkpt><trkpt lat="40.709706905203824" lon="9.692734574939799"><ele>19.0</ele><time>2026-04-30T11:53:22.995Z</time></trkpt><trkpt lat="40.70986073162618" lon="9.69250660161328"><ele>19.0</ele><time>2026-04-30T11:53:23.995Z</time></trkpt><trkpt lat="40.71000217770538" lon="9.692266912572919"><ele>19.0</ele><time>2026-04-30T11:53:24.995Z</time></trkpt><trkpt lat="40.710131812347925" lon="9.692025999834437"><ele>17.666666666666664</ele><time>2026-04-30T11:53:25.995Z</time></trkpt><trkpt lat="40.71025395989109" lon="9.691778932067992"><ele>16.333333333333332</ele><time>2026-04-30T11:53:26.995Z</time></trkpt><trkpt lat="40.71036765428329" lon="9.691527904572911"><ele>15.0</ele><time>2026-04-30T11:53:27.995Z</time></trkpt><trkpt lat="40.71047473205449" lon="9.691266628682618"><ele>16.5</ele><time>2026-04-30T11:53:28.995Z</time></trkpt><trkpt lat="40.710577377006224" lon="9.691001512238538"><ele>18.0</ele><time>2026-04-30T11:53:29.995Z</time></trkpt><trkpt lat="40.71067034651744" lon="9.690729483789077"><ele>18.0</ele><time>2026-04-30T11:53:30.995Z</time></trkpt><trkpt lat="40.71075368330322" lon="9.690454578672378"><ele>18.0</ele><time>2026-04-30T11:53:31.995Z</time></trkpt><trkpt lat="40.7108305761214" lon="9.690178064358124"><ele>18.0</ele><time>2026-04-30T11:53:32.995Z</time></trkpt><trkpt lat="40.71089835787816" lon="9.689897032183499"><ele>19.0</ele><time>2026-04-30T11:53:33.995Z</time></trkpt><trkpt lat="40.71095569220738" lon="9.689609728880619"><ele>20.0</ele><time>2026-04-30T11:53:34.995Z</time></trkpt><trkpt lat="40.71100670461494" lon="9.689314609539302"><ele>21.0</ele><time>2026-04-30T11:53:35.995Z</time></trkpt><trkpt lat="40.71105667007325" lon="9.689020199650704"><ele>22.0</ele><time>2026-04-30T11:53:36.995Z</time></trkpt><trkpt lat="40.71110787069454" lon="9.688723463593426"><ele>18.5</ele><time>2026-04-30T11:53:37.995Z</time></trkpt><trkpt lat="40.7111606785712" lon="9.688429565906619"><ele>15.0</ele><time>2026-04-30T11:53:38.994Z</time></trkpt><trkpt lat="40.71121371883619" lon="9.688137833210906"><ele>15.0</ele><time>2026-04-30T11:53:39.995Z</time></trkpt><trkpt lat="40.711268788338714" lon="9.687853638361686"><ele>15.0</ele><time>2026-04-30T11:53:40.995Z</time></trkpt><trkpt lat="40.711324826996695" lon="9.687585454842212"><ele>15.0</ele><time>2026-04-30T11:53:41.994Z</time></trkpt><trkpt lat="40.711384477649396" lon="9.687317776897874"><ele>15.666666666666668</ele><time>2026-04-30T11:53:42.994Z</time></trkpt><trkpt lat="40.71144711628274" lon="9.687051059507791"><ele>16.333333333333336</ele><time>2026-04-30T11:53:43.995Z</time></trkpt><trkpt lat="40.711514625047144" lon="9.686781292572189"><ele>17.0</ele><time>2026-04-30T11:53:44.995Z</time></trkpt><trkpt lat="40.71159097335917" lon="9.686505092619242"><ele>17.0</ele><time>2026-04-30T11:53:45.995Z</time></trkpt><trkpt lat="40.71167068524339" lon="9.68623251449195"><ele>17.0</ele><time>2026-04-30T11:53:46.995Z</time></trkpt><trkpt lat="40.71175600496962" lon="9.685960249653634"><ele>17.0</ele><time>2026-04-30T11:53:47.995Z</time></trkpt><trkpt lat="40.71184852584725" lon="9.685693183424823"><ele>17.333333333333336</ele><time>2026-04-30T11:53:48.995Z</time></trkpt><trkpt lat="40.711945644898144" lon="9.685432024047484"><ele>17.666666666666668</ele><time>2026-04-30T11:53:49.995Z</time></trkpt><trkpt lat="40.712048443127415" lon="9.685180722191248"><ele>18.0</ele><time>2026-04-30T11:53:50.995Z</time></trkpt><trkpt lat="40.71215673961675" lon="9.684932424176298"><ele>18.0</ele><time>2026-04-30T11:53:51.995Z</time></trkpt><trkpt lat="40.71227006253445" lon="9.684686014601409"><ele>18.0</ele><time>2026-04-30T11:53:52.995Z</time></trkpt><trkpt lat="40.712385371053074" lon="9.684445967859032"><ele>18.0</ele><time>2026-04-30T11:53:53.995Z</time></trkpt><trkpt lat="40.71250878071735" lon="9.684210118779207"><ele>18.333333333333332</ele><time>2026-04-30T11:53:54.995Z</time></trkpt><trkpt lat="40.71263794212403" lon="9.6839725672222"><ele>18.666666666666664</ele><time>2026-04-30T11:53:55.995Z</time></trkpt><trkpt lat="40.71277344352594" lon="9.683737960583944"><ele>19.0</ele><time>2026-04-30T11:53:56.995Z</time></trkpt><trkpt lat="40.71291532574978" lon="9.683508713390772"><ele>20.0</ele><time>2026-04-30T11:53:57.995Z</time></trkpt><trkpt lat="40.71305953509202" lon="9.683290574886032"><ele>21.0</ele><time>2026-04-30T11:53:58.995Z</time></trkpt><trkpt lat="40.713209290255506" lon="9.683073598279512"><ele>22.0</ele><time>2026-04-30T11:53:59.995Z</time></trkpt><trkpt lat="40.71336390064388" lon="9.682860581501458"><ele>22.0</ele><time>2026-04-30T11:54:00.995Z</time></trkpt><trkpt lat="40.713521588851314" lon="9.682647369520055"><ele>22.0</ele><time>2026-04-30T11:54:01.995Z</time></trkpt><trkpt lat="40.71367920692867" lon="9.68244184624758"><ele>22.0</ele><time>2026-04-30T11:54:02.995Z</time></trkpt><trkpt lat="40.713835684597875" lon="9.68223942212964"><ele>22.0</ele><time>2026-04-30T11:54:03.995Z</time></trkpt><trkpt lat="40.71399408207297" lon="9.682035476304263"><ele>22.0</ele><time>2026-04-30T11:54:04.995Z</time></trkpt><trkpt lat="40.71415311362162" lon="9.681832888263529"><ele>22.0</ele><time>2026-04-30T11:54:05.995Z</time></trkpt><trkpt lat="40.714310821075216" lon="9.681633804336299"><ele>23.0</ele><time>2026-04-30T11:54:06.995Z</time></trkpt><trkpt lat="40.71446977358769" lon="9.681429500342794"><ele>24.0</ele><time>2026-04-30T11:54:07.995Z</time></trkpt><trkpt lat="40.714623510446636" lon="9.681225752629958"><ele>25.0</ele><time>2026-04-30T11:54:08.995Z</time></trkpt><trkpt lat="40.71477380185142" lon="9.681014571869586"><ele>26.0</ele><time>2026-04-30T11:54:09.995Z</time></trkpt><trkpt lat="40.714925804323286" lon="9.680803547043471"><ele>27.0</ele><time>2026-04-30T11:54:10.995Z</time></trkpt><trkpt lat="40.715065789543765" lon="9.680590689600557"><ele>28.0</ele><time>2026-04-30T11:54:11.995Z</time></trkpt><trkpt lat="40.715201251965844" lon="9.680370370298734"><ele>27.333333333333336</ele><time>2026-04-30T11:54:12.995Z</time></trkpt><trkpt lat="40.71532968364879" lon="9.68014187637822"><ele>26.666666666666664</ele><time>2026-04-30T11:54:13.995Z</time></trkpt><trkpt lat="40.71545730723667" lon="9.679901356489442"><ele>26.0</ele><time>2026-04-30T11:54:14.995Z</time></trkpt><trkpt lat="40.71558839284205" lon="9.679658245569733"><ele>26.0</ele><time>2026-04-30T11:54:15.995Z</time></trkpt><trkpt lat="40.71571514727732" lon="9.679410524095127"><ele>26.0</ele><time>2026-04-30T11:54:16.995Z</time></trkpt><trkpt lat="40.71583699758313" lon="9.679160923785064"><ele>26.0</ele><time>2026-04-30T11:54:17.995Z</time></trkpt><trkpt lat="40.71595251771185" lon="9.678904415170965"><ele>26.0</ele><time>2026-04-30T11:54:18.995Z</time></trkpt><trkpt lat="40.716063958252604" lon="9.678643231065852"><ele>25.5</ele><time>2026-04-30T11:54:19.995Z</time></trkpt><trkpt lat="40.71617147707959" lon="9.67837844175071"><ele>25.0</ele><time>2026-04-30T11:54:20.995Z</time></trkpt><trkpt lat="40.71626981296482" lon="9.678110749945585"><ele>25.0</ele><time>2026-04-30T11:54:21.995Z</time></trkpt><trkpt lat="40.71636116154912" lon="9.677840011866294"><ele>25.0</ele><time>2026-04-30T11:54:22.995Z</time></trkpt><trkpt lat="40.71644939234012" lon="9.677567931979437"><ele>25.0</ele><time>2026-04-30T11:54:23.995Z</time></trkpt><trkpt lat="40.71653440330349" lon="9.677293380325153"><ele>26.0</ele><time>2026-04-30T11:54:24.995Z</time></trkpt><trkpt lat="40.71661554282435" lon="9.67702159968013"><ele>27.0</ele><time>2026-04-30T11:54:25.996Z</time></trkpt><trkpt lat="40.716694332265945" lon="9.67674785143346"><ele>28.0</ele><time>2026-04-30T11:54:26.996Z</time></trkpt><trkpt lat="40.716772756752114" lon="9.67647495120334"><ele>28.333333333333336</ele><time>2026-04-30T11:54:27.996Z</time></trkpt><trkpt lat="40.716849044686896" lon="9.676202195755438"><ele>28.666666666666664</ele><time>2026-04-30T11:54:28.996Z</time></trkpt><trkpt lat="40.71692607616396" lon="9.675932598088526"><ele>29.0</ele><time>2026-04-30T11:54:29.996Z</time></trkpt><trkpt lat="40.71700581380413" lon="9.675668011699464"><ele>29.666666666666664</ele><time>2026-04-30T11:54:30.996Z</time></trkpt><trkpt lat="40.71709385072564" lon="9.675404884156023"><ele>30.333333333333336</ele><time>2026-04-30T11:54:31.996Z</time></trkpt><trkpt lat="40.71718835408714" lon="9.675145014490377"><ele>31.0</ele><time>2026-04-30T11:54:32.996Z</time></trkpt><trkpt lat="40.71728817652416" lon="9.674885443803968"><ele>32.0</ele><time>2026-04-30T11:54:33.996Z</time></trkpt><trkpt lat="40.717394033254934" lon="9.67462772493352"><ele>33.0</ele><time>2026-04-30T11:54:34.996Z</time></trkpt><trkpt lat="40.717506118091194" lon="9.674373850289399"><ele>34.0</ele><time>2026-04-30T11:54:35.996Z</time></trkpt><trkpt lat="40.717621497992674" lon="9.674122985458881"><ele>33.66666666666667</ele><time>2026-04-30T11:54:36.996Z</time></trkpt><trkpt lat="40.71773660797919" lon="9.67386848517168"><ele>33.333333333333336</ele><time>2026-04-30T11:54:37.996Z</time></trkpt><trkpt lat="40.717847995303" lon="9.673614374563344"><ele>33.0</ele><time>2026-04-30T11:54:38.996Z</time></trkpt><trkpt lat="40.71795995883907" lon="9.673361033001935"><ele>33.0</ele><time>2026-04-30T11:54:39.996Z</time></trkpt><trkpt lat="40.71806749689526" lon="9.673101701461745"><ele>33.0</ele><time>2026-04-30T11:54:40.996Z</time></trkpt><trkpt lat="40.71817419374432" lon="9.672843053401573"><ele>33.0</ele><time>2026-04-30T11:54:41.996Z</time></trkpt><trkpt lat="40.71827416410437" lon="9.672577474517519"><ele>35.333333333333336</ele><time>2026-04-30T11:54:42.996Z</time></trkpt><trkpt lat="40.71836711101596" lon="9.672305029399567"><ele>37.66666666666667</ele><time>2026-04-30T11:54:43.996Z</time></trkpt><trkpt lat="40.718455422118986" lon="9.672037069465489"><ele>40.0</ele><time>2026-04-30T11:54:44.996Z</time></trkpt><trkpt lat="40.71853830675385" lon="9.67176536402427"><ele>40.333333333333336</ele><time>2026-04-30T11:54:45.996Z</time></trkpt><trkpt lat="40.71861751810009" lon="9.671491201288793"><ele>40.666666666666664</ele><time>2026-04-30T11:54:46.996Z</time></trkpt><trkpt lat="40.71869448809613" lon="9.67121843910787"><ele>41.0</ele><time>2026-04-30T11:54:47.996Z</time></trkpt><trkpt lat="40.71877306031065" lon="9.670946592462808"><ele>41.0</ele><time>2026-04-30T11:54:48.996Z</time></trkpt><trkpt lat="40.71885351669922" lon="9.670676141540259"><ele>41.0</ele><time>2026-04-30T11:54:49.996Z</time></trkpt><trkpt lat="40.71893927141482" lon="9.67040963895519"><ele>41.0</ele><time>2026-04-30T11:54:50.996Z</time></trkpt><trkpt lat="40.719028231061344" lon="9.670146217616622"><ele>43.666666666666664</ele><time>2026-04-30T11:54:51.996Z</time></trkpt><trkpt lat="40.719126839775136" lon="9.669886756275313"><ele>46.33333333333333</ele><time>2026-04-30T11:54:52.996Z</time></trkpt><trkpt lat="40.71923201006441" lon="9.669631179479829"><ele>49.0</ele><time>2026-04-30T11:54:53.996Z</time></trkpt><trkpt lat="40.719342796091574" lon="9.6693777812781"><ele>45.0</ele><time>2026-04-30T11:54:54.996Z</time></trkpt><trkpt lat="40.71945650135147" lon="9.669123144425066"><ele>41.0</ele><time>2026-04-30T11:54:55.996Z</time></trkpt><trkpt lat="40.71957123675479" lon="9.668866387119067"><ele>41.0</ele><time>2026-04-30T11:54:56.996Z</time></trkpt><trkpt lat="40.71968334758156" lon="9.66860975393639"><ele>41.0</ele><time>2026-04-30T11:54:57.996Z</time></trkpt><trkpt lat="40.71979582007187" lon="9.668354449763578"><ele>41.0</ele><time>2026-04-30T11:54:58.996Z</time></trkpt><trkpt lat="40.71990742315544" lon="9.668102181232484"><ele>41.33333333333333</ele><time>2026-04-30T11:54:59.996Z</time></trkpt><trkpt lat="40.720018211814114" lon="9.667853160574195"><ele>41.666666666666664</ele><time>2026-04-30T11:55:00.996Z</time></trkpt><trkpt lat="40.72013046609499" lon="9.667604636095433"><ele>42.0</ele><time>2026-04-30T11:55:01.996Z</time></trkpt><trkpt lat="40.720240587651375" lon="9.667358189710379"><ele>42.0</ele><time>2026-04-30T11:55:02.996Z</time></trkpt><trkpt lat="40.72035068240881" lon="9.667105989224538"><ele>42.0</ele><time>2026-04-30T11:55:03.996Z</time></trkpt><trkpt lat="40.72046074274976" lon="9.666853117526651"><ele>42.0</ele><time>2026-04-30T11:55:04.996Z</time></trkpt><trkpt lat="40.720569463783626" lon="9.66660560649425"><ele>44.66666666666667</ele><time>2026-04-30T11:55:05.996Z</time></trkpt><trkpt lat="40.72068146212706" lon="9.666357005395085"><ele>47.333333333333336</ele><time>2026-04-30T11:55:06.996Z</time></trkpt><trkpt lat="40.72079493699748" lon="9.666110635925069"><ele>50.0</ele><time>2026-04-30T11:55:07.996Z</time></trkpt><trkpt lat="40.720910645495216" lon="9.665868310077316"><ele>49.0</ele><time>2026-04-30T11:55:08.996Z</time></trkpt><trkpt lat="40.72102980863188" lon="9.66563337626125"><ele>48.0</ele><time>2026-04-30T11:55:09.996Z</time></trkpt><trkpt lat="40.72115401166869" lon="9.665403693152683"><ele>47.0</ele><time>2026-04-30T11:55:10.996Z</time></trkpt><trkpt lat="40.721283007371646" lon="9.665176212729902"><ele>49.666666666666664</ele><time>2026-04-30T11:55:11.996Z</time></trkpt><trkpt lat="40.72141623046881" lon="9.66495096584851"><ele>52.33333333333333</ele><time>2026-04-30T11:55:12.996Z</time></trkpt><trkpt lat="40.72155469063835" lon="9.66473104717428"><ele>55.0</ele><time>2026-04-30T11:55:13.996Z</time></trkpt><trkpt lat="40.72169907471724" lon="9.664514141129796"><ele>54.0</ele><time>2026-04-30T11:55:14.996Z</time></trkpt><trkpt lat="40.72184344812461" lon="9.664304896340061"><ele>53.0</ele><time>2026-04-30T11:55:15.996Z</time></trkpt><trkpt lat="40.721992285211755" lon="9.66409759908911"><ele>52.0</ele><time>2026-04-30T11:55:16.996Z</time></trkpt><trkpt lat="40.72214549254566" lon="9.66389606603979"><ele>52.0</ele><time>2026-04-30T11:55:17.996Z</time></trkpt><trkpt lat="40.722302860599434" lon="9.663699816640094"><ele>52.0</ele><time>2026-04-30T11:55:18.996Z</time></trkpt><trkpt lat="40.722462737859914" lon="9.663503296075554"><ele>52.0</ele><time>2026-04-30T11:55:19.996Z</time></trkpt><trkpt lat="40.722623220917114" lon="9.663306036658446"><ele>53.33333333333333</ele><time>2026-04-30T11:55:20.996Z</time></trkpt><trkpt lat="40.72277795337745" lon="9.663107064837506"><ele>54.66666666666667</ele><time>2026-04-30T11:55:21.996Z</time></trkpt><trkpt lat="40.72293042906858" lon="9.66290371561169"><ele>56.0</ele><time>2026-04-30T11:55:22.996Z</time></trkpt><trkpt lat="40.72307816094518" lon="9.662697744581777"><ele>61.0</ele><time>2026-04-30T11:55:23.996Z</time></trkpt><trkpt lat="40.72322443565007" lon="9.662482602255738"><ele>66.0</ele><time>2026-04-30T11:55:24.996Z</time></trkpt><trkpt lat="40.72336556078649" lon="9.662265293319981"><ele>71.0</ele><time>2026-04-30T11:55:25.996Z</time></trkpt><trkpt lat="40.723505123533705" lon="9.662046646625237"><ele>69.0</ele><time>2026-04-30T11:55:26.996Z</time></trkpt><trkpt lat="40.72364527931732" lon="9.661827122847429"><ele>67.0</ele><time>2026-04-30T11:55:27.996Z</time></trkpt><trkpt lat="40.723782340281076" lon="9.661607404594974"><ele>65.0</ele><time>2026-04-30T11:55:28.996Z</time></trkpt><trkpt lat="40.723918266138284" lon="9.661384051231314"><ele>65.0</ele><time>2026-04-30T11:55:29.996Z</time></trkpt><trkpt lat="40.72404856268313" lon="9.66115713036835"><ele>65.0</ele><time>2026-04-30T11:55:30.996Z</time></trkpt><trkpt lat="40.724170869285246" lon="9.660932883717821"><ele>65.0</ele><time>2026-04-30T11:55:31.996Z</time></trkpt><trkpt lat="40.724286163301606" lon="9.660710654699821"><ele>67.33333333333334</ele><time>2026-04-30T11:55:32.996Z</time></trkpt><trkpt lat="40.72439296608824" lon="9.660487009416352"><ele>69.66666666666667</ele><time>2026-04-30T11:55:33.996Z</time></trkpt><trkpt lat="40.72450375409188" lon="9.660266045529191"><ele>72.0</ele><time>2026-04-30T11:55:34.996Z</time></trkpt><trkpt lat="40.72461286602916" lon="9.660063972780181"><ele>80.0</ele><time>2026-04-30T11:55:35.996Z</time></trkpt><trkpt lat="40.724699742740135" lon="9.659859383124308"><ele>88.0</ele><time>2026-04-30T11:55:36.996Z</time></trkpt><trkpt lat="40.72479206897826" lon="9.65966196221641"><ele>96.0</ele><time>2026-04-30T11:55:37.996Z</time></trkpt><trkpt lat="40.724885628683964" lon="9.659463589064169"><ele>107.66666666666666</ele><time>2026-04-30T11:55:38.996Z</time></trkpt><trkpt lat="40.72497911837746" lon="9.659265364332109"><ele>119.33333333333333</ele><time>2026-04-30T11:55:39.996Z</time></trkpt><trkpt lat="40.72507179105245" lon="9.659068871900569"><ele>131.0</ele><time>2026-04-30T11:55:40.996Z</time></trkpt><trkpt lat="40.725162397403565" lon="9.658877379901174"><ele>134.33333333333331</ele><time>2026-04-30T11:55:41.996Z</time></trkpt><trkpt lat="40.72525080225076" lon="9.658691505306784"><ele>137.66666666666666</ele><time>2026-04-30T11:55:42.996Z</time></trkpt><trkpt lat="40.725336228577554" lon="9.658511521547656"><ele>141.0</ele><time>2026-04-30T11:55:43.995Z</time></trkpt><trkpt lat="40.725419841033805" lon="9.658334413867186"><ele>141.0</ele><time>2026-04-30T11:55:44.994Z</time></trkpt><trkpt lat="40.72550093722679" lon="9.65816263605581"><ele>141.0</ele><time>2026-04-30T11:55:45.994Z</time></trkpt><trkpt lat="40.725586864431634" lon="9.657980625355712"><ele>141.0</ele><time>2026-04-30T11:55:47.139Z</time></trkpt><trkpt lat="40.72568162894745" lon="9.65783761378427"><ele>118.0</ele><time>2026-04-30T11:55:48.137Z</time></trkpt><trkpt lat="40.726414545994594" lon="9.656230890721682"><ele>77.0</ele><time>2026-04-30T11:55:58.772Z</time></trkpt><trkpt lat="40.72747594472826" lon="9.654083808511665"><ele>77.0</ele><time>2026-04-30T11:55:59.995Z</time></trkpt><trkpt lat="40.72755291197944" lon="9.653794436328386"><ele>77.0</ele><time>2026-04-30T11:56:00.995Z</time></trkpt><trkpt lat="40.72765819890865" lon="9.653554353631417"><ele>77.0</ele><time>2026-04-30T11:56:01.995Z</time></trkpt><trkpt lat="40.727775571534" lon="9.653313173133794"><ele>76.0</ele><time>2026-04-30T11:56:02.995Z</time></trkpt><trkpt lat="40.727899625457134" lon="9.65308284161519"><ele>75.0</ele><time>2026-04-30T11:56:03.995Z</time></trkpt><trkpt lat="40.72803563535339" lon="9.652903793041899"><ele>74.0</ele><time>2026-04-30T11:56:04.995Z</time></trkpt><trkpt lat="40.72818286493655" lon="9.65266872127084"><ele>74.0</ele><time>2026-04-30T11:56:05.995Z</time></trkpt><trkpt lat="40.72833236497238" lon="9.652446160362462"><ele>74.0</ele><time>2026-04-30T11:56:06.995Z</time></trkpt><trkpt lat="40.72849007682018" lon="9.652229842161686"><ele>73.0</ele><time>2026-04-30T11:56:07.995Z</time></trkpt><trkpt lat="40.72865231412259" lon="9.652029934997204"><ele>72.0</ele><time>2026-04-30T11:56:08.995Z</time></trkpt><trkpt lat="40.72881962286152" lon="9.651839449108834"><ele>71.0</ele><time>2026-04-30T11:56:09.995Z</time></trkpt><trkpt lat="40.72898865967049" lon="9.651660852238933"><ele>71.0</ele><time>2026-04-30T11:56:10.995Z</time></trkpt><trkpt lat="40.729166123225085" lon="9.651486068820473"><ele>71.0</ele><time>2026-04-30T11:56:11.995Z</time></trkpt><trkpt lat="40.72935138639172" lon="9.651316404345565"><ele>71.0</ele><time>2026-04-30T11:56:12.995Z</time></trkpt><trkpt lat="40.72954192782193" lon="9.651157245972293"><ele>69.5</ele><time>2026-04-30T11:56:13.995Z</time></trkpt><trkpt lat="40.72973460110556" lon="9.651001923993826"><ele>68.0</ele><time>2026-04-30T11:56:14.995Z</time></trkpt><trkpt lat="40.72993187878789" lon="9.650854844086336"><ele>68.0</ele><time>2026-04-30T11:56:15.995Z</time></trkpt><trkpt lat="40.730129848983275" lon="9.650721419861013"><ele>68.0</ele><time>2026-04-30T11:56:16.995Z</time></trkpt><trkpt lat="40.730329144940924" lon="9.6505982346435"><ele>68.0</ele><time>2026-04-30T11:56:17.995Z</time></trkpt><trkpt lat="40.73053165875822" lon="9.650481647382462"><ele>69.33333333333334</ele><time>2026-04-30T11:56:18.995Z</time></trkpt><trkpt lat="40.73073607399814" lon="9.650376668311262"><ele>70.66666666666667</ele><time>2026-04-30T11:56:19.995Z</time></trkpt><trkpt lat="40.73094388587083" lon="9.650273859071275"><ele>72.0</ele><time>2026-04-30T11:56:20.995Z</time></trkpt><trkpt lat="40.73115347961333" lon="9.650183642845887"><ele>76.0</ele><time>2026-04-30T11:56:21.995Z</time></trkpt><trkpt lat="40.73136404398899" lon="9.650099117973125"><ele>80.0</ele><time>2026-04-30T11:56:22.995Z</time></trkpt><trkpt lat="40.73157756467199" lon="9.650025610769513"><ele>84.0</ele><time>2026-04-30T11:56:23.995Z</time></trkpt><trkpt lat="40.73179499858737" lon="9.649959788756645"><ele>83.66666666666667</ele><time>2026-04-30T11:56:24.995Z</time></trkpt><trkpt lat="40.73201475823792" lon="9.649905064479556"><ele>83.33333333333334</ele><time>2026-04-30T11:56:25.995Z</time></trkpt><trkpt lat="40.73223640806805" lon="9.649854107493043"><ele>83.0</ele><time>2026-04-30T11:56:26.995Z</time></trkpt><trkpt lat="40.7324566456892" lon="9.649815770567528"><ele>83.0</ele><time>2026-04-30T11:56:27.995Z</time></trkpt><trkpt lat="40.7326729445011" lon="9.649776820574067"><ele>83.0</ele><time>2026-04-30T11:56:28.995Z</time></trkpt><trkpt lat="40.73288659495004" lon="9.649731597679896"><ele>83.0</ele><time>2026-04-30T11:56:29.995Z</time></trkpt><trkpt lat="40.73309727640425" lon="9.649678875156791"><ele>83.66666666666667</ele><time>2026-04-30T11:56:30.995Z</time></trkpt><trkpt lat="40.733307748182554" lon="9.649616889484259"><ele>84.33333333333333</ele><time>2026-04-30T11:56:31.995Z</time></trkpt><trkpt lat="40.73351989181705" lon="9.649543186854002"><ele>85.0</ele><time>2026-04-30T11:56:32.995Z</time></trkpt><trkpt lat="40.73373445169444" lon="9.64945766140044"><ele>87.0</ele><time>2026-04-30T11:56:33.995Z</time></trkpt><trkpt lat="40.733947109498054" lon="9.649368584538689"><ele>89.0</ele><time>2026-04-30T11:56:34.995Z</time></trkpt><trkpt lat="40.73415841630889" lon="9.649271856240272"><ele>91.0</ele><time>2026-04-30T11:56:35.995Z</time></trkpt><trkpt lat="40.73436902743593" lon="9.649169310373486"><ele>95.0</ele><time>2026-04-30T11:56:36.995Z</time></trkpt><trkpt lat="40.73457716295324" lon="9.649062422777106"><ele>99.0</ele><time>2026-04-30T11:56:37.995Z</time></trkpt><trkpt lat="40.734781340258536" lon="9.648946697917193"><ele>103.0</ele><time>2026-04-30T11:56:38.995Z</time></trkpt><trkpt lat="40.73498432610871" lon="9.648822814397828"><ele>103.0</ele><time>2026-04-30T11:56:39.995Z</time></trkpt><trkpt lat="40.73518594053964" lon="9.648692698102085"><ele>103.0</ele><time>2026-04-30T11:56:40.995Z</time></trkpt><trkpt lat="40.73538258418414" lon="9.648551653092897"><ele>103.0</ele><time>2026-04-30T11:56:41.995Z</time></trkpt><trkpt lat="40.735577455262344" lon="9.64840352950498"><ele>104.0</ele><time>2026-04-30T11:56:42.995Z</time></trkpt><trkpt lat="40.735768001959805" lon="9.648247643448496"><ele>105.0</ele><time>2026-04-30T11:56:43.995Z</time></trkpt><trkpt lat="40.735956318446206" lon="9.648086404581592"><ele>106.0</ele><time>2026-04-30T11:56:44.995Z</time></trkpt><trkpt lat="40.736140058005766" lon="9.64791473523283"><ele>105.33333333333334</ele><time>2026-04-30T11:56:45.995Z</time></trkpt><trkpt lat="40.73631852916998" lon="9.647741505358114"><ele>104.66666666666666</ele><time>2026-04-30T11:56:46.995Z</time></trkpt><trkpt lat="40.73649507869287" lon="9.647566336171472"><ele>104.0</ele><time>2026-04-30T11:56:47.995Z</time></trkpt><trkpt lat="40.73666894291771" lon="9.647378902640703"><ele>104.0</ele><time>2026-04-30T11:56:48.995Z</time></trkpt><trkpt lat="40.736842711931544" lon="9.647186835923835"><ele>104.0</ele><time>2026-04-30T11:56:49.995Z</time></trkpt><trkpt lat="40.737013705157835" lon="9.646986335172373"><ele>103.0</ele><time>2026-04-30T11:56:50.995Z</time></trkpt><trkpt lat="40.737185243198844" lon="9.646786306635438"><ele>102.0</ele><time>2026-04-30T11:56:51.995Z</time></trkpt><trkpt lat="40.73735779652163" lon="9.64658981774395"><ele>102.0</ele><time>2026-04-30T11:56:52.995Z</time></trkpt><trkpt lat="40.73752952347889" lon="9.646399236535004"><ele>102.0</ele><time>2026-04-30T11:56:53.995Z</time></trkpt><trkpt lat="40.73770115546905" lon="9.646212882138457"><ele>102.0</ele><time>2026-04-30T11:56:54.995Z</time></trkpt><trkpt lat="40.7378743177958" lon="9.646026492034045"><ele>101.66666666666666</ele><time>2026-04-30T11:56:55.995Z</time></trkpt><trkpt lat="40.73804480217547" lon="9.645845104400749"><ele>101.33333333333333</ele><time>2026-04-30T11:56:56.995Z</time></trkpt><trkpt lat="40.738215734620724" lon="9.645662204505838"><ele>101.0</ele><time>2026-04-30T11:56:57.995Z</time></trkpt><trkpt lat="40.73838560794284" lon="9.64548072033271"><ele>102.0</ele><time>2026-04-30T11:56:58.995Z</time></trkpt><trkpt lat="40.738553984674226" lon="9.645297274423806"><ele>103.0</ele><time>2026-04-30T11:56:59.995Z</time></trkpt><trkpt lat="40.73872658728244" lon="9.645112031915765"><ele>104.0</ele><time>2026-04-30T11:57:00.995Z</time></trkpt><trkpt lat="40.738900121283976" lon="9.64492400115656"><ele>104.0</ele><time>2026-04-30T11:57:01.995Z</time></trkpt><trkpt lat="40.73907106864584" lon="9.644728012903508"><ele>104.0</ele><time>2026-04-30T11:57:02.995Z</time></trkpt><trkpt lat="40.73924122179339" lon="9.64453098539716"><ele>113.5</ele><time>2026-04-30T11:57:03.995Z</time></trkpt><trkpt lat="40.73940980710999" lon="9.644332694065644"><ele>123.0</ele><time>2026-04-30T11:57:04.995Z</time></trkpt><trkpt lat="40.73957757567057" lon="9.644133914802682"><ele>123.0</ele><time>2026-04-30T11:57:05.995Z</time></trkpt><trkpt lat="40.739746542194304" lon="9.64393739269172"><ele>123.0</ele><time>2026-04-30T11:57:06.995Z</time></trkpt><trkpt lat="40.73990957955031" lon="9.643748019855314"><ele>123.0</ele><time>2026-04-30T11:57:07.995Z</time></trkpt><trkpt lat="40.740072672709694" lon="9.643560675296294"><ele>132.0</ele><time>2026-04-30T11:57:08.995Z</time></trkpt><trkpt lat="40.740233580566766" lon="9.643377316059984"><ele>141.0</ele><time>2026-04-30T11:57:09.995Z</time></trkpt><trkpt lat="40.74039181819787" lon="9.643196316799147"><ele>150.0</ele><time>2026-04-30T11:57:10.995Z</time></trkpt><trkpt lat="40.740549101307586" lon="9.643018796608278"><ele>150.0</ele><time>2026-04-30T11:57:11.995Z</time></trkpt><trkpt lat="40.74070591502416" lon="9.642844702448441"><ele>150.0</ele><time>2026-04-30T11:57:12.995Z</time></trkpt><trkpt lat="40.74088357976312" lon="9.642646869017932"><ele>150.0</ele><time>2026-04-30T11:57:14.133Z</time></trkpt><trkpt lat="40.741038664150096" lon="9.64247387265653"><ele>88.0</ele><time>2026-04-30T11:57:15.133Z</time></trkpt><trkpt lat="40.74200418711646" lon="9.641286443216417"><ele>91.0</ele><time>2026-04-30T11:57:19.995Z</time></trkpt><trkpt lat="40.74217932593216" lon="9.641084221364721"><ele>94.0</ele><time>2026-04-30T11:57:20.995Z</time></trkpt><trkpt lat="40.74235254806207" lon="9.640884915495484"><ele>94.0</ele><time>2026-04-30T11:57:21.995Z</time></trkpt><trkpt lat="40.742526472386686" lon="9.640689051047143"><ele>94.0</ele><time>2026-04-30T11:57:22.995Z</time></trkpt><trkpt lat="40.74269219153879" lon="9.64049901492707"><ele>94.0</ele><time>2026-04-30T11:57:23.995Z</time></trkpt><trkpt lat="40.74285374722562" lon="9.64031326601722"><ele>94.0</ele><time>2026-04-30T11:57:24.995Z</time></trkpt><trkpt lat="40.74302047299002" lon="9.640147941860201"><ele>94.0</ele><time>2026-04-30T11:57:25.995Z</time></trkpt><trkpt lat="40.74319383534354" lon="9.639983462846809"><ele>94.0</ele><time>2026-04-30T11:57:26.995Z</time></trkpt><trkpt lat="40.743375068356855" lon="9.639835145802822"><ele>94.33333333333333</ele><time>2026-04-30T11:57:27.995Z</time></trkpt><trkpt lat="40.74356317574923" lon="9.639694554929589"><ele>94.66666666666667</ele><time>2026-04-30T11:57:28.995Z</time></trkpt><trkpt lat="40.74375381099065" lon="9.639564402012118"><ele>95.0</ele><time>2026-04-30T11:57:29.995Z</time></trkpt><trkpt lat="40.743948395678274" lon="9.63945030395029"><ele>97.33333333333334</ele><time>2026-04-30T11:57:30.995Z</time></trkpt><trkpt lat="40.74414485182598" lon="9.639346113502022"><ele>99.66666666666667</ele><time>2026-04-30T11:57:31.995Z</time></trkpt><trkpt lat="40.744347960671426" lon="9.63925505790728"><ele>102.0</ele><time>2026-04-30T11:57:32.995Z</time></trkpt><trkpt lat="40.744558852899615" lon="9.639172025021"><ele>102.66666666666666</ele><time>2026-04-30T11:57:33.995Z</time></trkpt><trkpt lat="40.74477230354446" lon="9.639099639421488"><ele>103.33333333333333</ele><time>2026-04-30T11:57:34.995Z</time></trkpt><trkpt lat="40.744993050933225" lon="9.639043102220603"><ele>104.0</ele><time>2026-04-30T11:57:35.995Z</time></trkpt><trkpt lat="40.74521565703346" lon="9.639010543618811"><ele>102.0</ele><time>2026-04-30T11:57:36.995Z</time></trkpt><trkpt lat="40.74543599065252" lon="9.638990841883015"><ele>100.0</ele><time>2026-04-30T11:57:37.995Z</time></trkpt><trkpt lat="40.74566049910525" lon="9.638983390942654"><ele>98.0</ele><time>2026-04-30T11:57:38.995Z</time></trkpt><trkpt lat="40.74588367246691" lon="9.638982433044431"><ele>96.0</ele><time>2026-04-30T11:57:39.995Z</time></trkpt><trkpt lat="40.74610893209188" lon="9.639000884265206"><ele>94.0</ele><time>2026-04-30T11:57:40.995Z</time></trkpt><trkpt lat="40.746333967082435" lon="9.639025147596229"><ele>94.0</ele><time>2026-04-30T11:57:41.995Z</time></trkpt><trkpt lat="40.746559212709734" lon="9.639065835682834"><ele>94.0</ele><time>2026-04-30T11:57:42.995Z</time></trkpt><trkpt lat="40.74678136777373" lon="9.639127250725824"><ele>97.0</ele><time>2026-04-30T11:57:43.995Z</time></trkpt><trkpt lat="40.74700155919513" lon="9.639206016474708"><ele>100.0</ele><time>2026-04-30T11:57:44.995Z</time></trkpt><trkpt lat="40.74721999600219" lon="9.639299953069706"><ele>100.0</ele><time>2026-04-30T11:57:45.995Z</time></trkpt><trkpt lat="40.74743413156398" lon="9.639410621231534"><ele>100.0</ele><time>2026-04-30T11:57:46.995Z</time></trkpt><trkpt lat="40.74764821299812" lon="9.63952865751782"><ele>102.0</ele><time>2026-04-30T11:57:47.995Z</time></trkpt><trkpt lat="40.74785775680695" lon="9.63964899427905"><ele>104.0</ele><time>2026-04-30T11:57:48.995Z</time></trkpt><trkpt lat="40.74806695769967" lon="9.639772017004917"><ele>104.0</ele><time>2026-04-30T11:57:49.995Z</time></trkpt><trkpt lat="40.748271231114614" lon="9.639897173157323"><ele>104.0</ele><time>2026-04-30T11:57:50.995Z</time></trkpt><trkpt lat="40.74847278800642" lon="9.640018978663614"><ele>104.0</ele><time>2026-04-30T11:57:51.995Z</time></trkpt><trkpt lat="40.748672334222576" lon="9.64013597288295"><ele>102.33333333333333</ele><time>2026-04-30T11:57:52.994Z</time></trkpt><trkpt lat="40.74887509297949" lon="9.640251175698054"><ele>100.66666666666666</ele><time>2026-04-30T11:57:53.994Z</time></trkpt><trkpt lat="40.74907835124646" lon="9.640362434688823"><ele>99.0</ele><time>2026-04-30T11:57:54.994Z</time></trkpt><trkpt lat="40.74928308717567" lon="9.640468800423273"><ele>97.33333333333333</ele><time>2026-04-30T11:57:55.995Z</time></trkpt><trkpt lat="40.74948892350432" lon="9.640566343844732"><ele>95.66666666666666</ele><time>2026-04-30T11:57:56.995Z</time></trkpt><trkpt lat="40.74969517266516" lon="9.640647821404432"><ele>94.0</ele><time>2026-04-30T11:57:57.994Z</time></trkpt><trkpt lat="40.7499060381384" lon="9.640712851291763"><ele>94.0</ele><time>2026-04-30T11:57:58.994Z</time></trkpt><trkpt lat="40.75011971054423" lon="9.640768151463355"><ele>94.0</ele><time>2026-04-30T11:57:59.994Z</time></trkpt><trkpt lat="40.750340393090674" lon="9.640817353410782"><ele>94.0</ele><time>2026-04-30T11:58:00.995Z</time></trkpt><trkpt lat="40.750560236259254" lon="9.640854852908245"><ele>92.0</ele><time>2026-04-30T11:58:01.994Z</time></trkpt><trkpt lat="40.75077788853785" lon="9.640880502289006"><ele>90.0</ele><time>2026-04-30T11:58:02.994Z</time></trkpt><trkpt lat="40.75098757575804" lon="9.640877875704348"><ele>88.0</ele><time>2026-04-30T11:58:03.994Z</time></trkpt><trkpt lat="40.75120342334077" lon="9.640862722087714"><ele>84.33333333333333</ele><time>2026-04-30T11:58:04.994Z</time></trkpt><trkpt lat="40.75141879652836" lon="9.640833502214006"><ele>80.66666666666667</ele><time>2026-04-30T11:58:05.994Z</time></trkpt><trkpt lat="40.751635047120395" lon="9.640795971819113"><ele>77.0</ele><time>2026-04-30T11:58:06.994Z</time></trkpt><trkpt lat="40.75185285858333" lon="9.640745250679359"><ele>75.0</ele><time>2026-04-30T11:58:07.994Z</time></trkpt><trkpt lat="40.75207074535112" lon="9.64067810665722"><ele>73.0</ele><time>2026-04-30T11:58:08.994Z</time></trkpt><trkpt lat="40.752286239189516" lon="9.64059660007358"><ele>71.0</ele><time>2026-04-30T11:58:09.994Z</time></trkpt><trkpt lat="40.752500891218155" lon="9.640499610195075"><ele>71.0</ele><time>2026-04-30T11:58:10.994Z</time></trkpt><trkpt lat="40.75271627461323" lon="9.640391026967567"><ele>71.0</ele><time>2026-04-30T11:58:11.994Z</time></trkpt><trkpt lat="40.752932166072796" lon="9.640277016099656"><ele>71.0</ele><time>2026-04-30T11:58:12.994Z</time></trkpt><trkpt lat="40.753148928811534" lon="9.64016401593797"><ele>71.0</ele><time>2026-04-30T11:58:13.994Z</time></trkpt><trkpt lat="40.75336400196477" lon="9.640052453055597"><ele>68.0</ele><time>2026-04-30T11:58:14.994Z</time></trkpt><trkpt lat="40.7535783026513" lon="9.63994207257474"><ele>65.0</ele><time>2026-04-30T11:58:15.994Z</time></trkpt><trkpt lat="40.7537916228098" lon="9.639839129267862"><ele>65.0</ele><time>2026-04-30T11:58:16.994Z</time></trkpt><trkpt lat="40.754002695001944" lon="9.639745832701077"><ele>65.0</ele><time>2026-04-30T11:58:17.994Z</time></trkpt><trkpt lat="40.75421455759389" lon="9.639657792691688"><ele>65.0</ele><time>2026-04-30T11:58:18.994Z</time></trkpt><trkpt lat="40.75442683712587" lon="9.63958766892659"><ele>62.333333333333336</ele><time>2026-04-30T11:58:19.994Z</time></trkpt><trkpt lat="40.754637328313905" lon="9.63953435270316"><ele>59.66666666666667</ele><time>2026-04-30T11:58:20.994Z</time></trkpt><trkpt lat="40.75483547288996" lon="9.63950492713761"><ele>57.0</ele><time>2026-04-30T11:58:21.994Z</time></trkpt><trkpt lat="40.75503432561116" lon="9.63948740331745"><ele>55.66666666666667</ele><time>2026-04-30T11:58:22.994Z</time></trkpt><trkpt lat="40.75523111895879" lon="9.639481221733865"><ele>54.333333333333336</ele><time>2026-04-30T11:58:23.994Z</time></trkpt><trkpt lat="40.75542962865582" lon="9.639481693482558"><ele>53.0</ele><time>2026-04-30T11:58:24.994Z</time></trkpt><trkpt lat="40.75562895155192" lon="9.639490918891997"><ele>53.0</ele><time>2026-04-30T11:58:25.994Z</time></trkpt><trkpt lat="40.75582767828156" lon="9.639511973626385"><ele>53.0</ele><time>2026-04-30T11:58:26.994Z</time></trkpt><trkpt lat="40.7560270752383" lon="9.639548451968157"><ele>53.0</ele><time>2026-04-30T11:58:27.994Z</time></trkpt><trkpt lat="40.75622389944138" lon="9.639598791125914"><ele>53.0</ele><time>2026-04-30T11:58:28.994Z</time></trkpt><trkpt lat="40.756421591008134" lon="9.63966047392079"><ele>53.0</ele><time>2026-04-30T11:58:29.994Z</time></trkpt><trkpt lat="40.756616659560855" lon="9.639733627606212"><ele>53.0</ele><time>2026-04-30T11:58:30.994Z</time></trkpt><trkpt lat="40.75680717769698" lon="9.639817154003484"><ele>57.66666666666667</ele><time>2026-04-30T11:58:31.994Z</time></trkpt><trkpt lat="40.7570001561282" lon="9.639914908538284"><ele>62.33333333333333</ele><time>2026-04-30T11:58:32.994Z</time></trkpt><trkpt lat="40.75719164679982" lon="9.64002502692976"><ele>67.0</ele><time>2026-04-30T11:58:33.994Z</time></trkpt><trkpt lat="40.75738205365155" lon="9.640143462775638"><ele>67.0</ele><time>2026-04-30T11:58:34.994Z</time></trkpt><trkpt lat="40.7575688801393" lon="9.640270272321468"><ele>67.0</ele><time>2026-04-30T11:58:35.994Z</time></trkpt><trkpt lat="40.75773813947055" lon="9.640408618795478"><ele>67.0</ele><time>2026-04-30T11:58:36.994Z</time></trkpt><trkpt lat="40.75788231362673" lon="9.64055419083641"><ele>65.66666666666666</ele><time>2026-04-30T11:58:37.994Z</time></trkpt><trkpt lat="40.758011107253346" lon="9.640694151167182"><ele>64.33333333333333</ele><time>2026-04-30T11:58:38.994Z</time></trkpt><trkpt lat="40.75812423311807" lon="9.640826305598267"><ele>63.0</ele><time>2026-04-30T11:58:39.994Z</time></trkpt><trkpt lat="40.75821519600629" lon="9.64095408501472"><ele>63.0</ele><time>2026-04-30T11:58:40.994Z</time></trkpt><trkpt lat="40.75828622291144" lon="9.64108602289177"><ele>63.0</ele><time>2026-04-30T11:58:41.994Z</time></trkpt><trkpt lat="40.758327544434906" lon="9.641220654295644"><ele>63.0</ele><time>2026-04-30T11:58:42.995Z</time></trkpt><trkpt lat="40.75834621860768" lon="9.641371654230174"><ele>63.0</ele><time>2026-04-30T11:58:43.995Z</time></trkpt><trkpt lat="40.75831350151849" lon="9.641529617812491"><ele>61.75</ele><time>2026-04-30T11:58:44.995Z</time></trkpt><trkpt lat="40.75831465364746" lon="9.641704654259692"><ele>60.5</ele><time>2026-04-30T11:58:45.995Z</time></trkpt><trkpt lat="40.75831390471361" lon="9.641894467109237"><ele>59.25</ele><time>2026-04-30T11:58:46.995Z</time></trkpt><trkpt lat="40.75832348983365" lon="9.642098417812516"><ele>58.0</ele><time>2026-04-30T11:58:47.995Z</time></trkpt><trkpt lat="40.758315590234034" lon="9.64230873985603"><ele>57.33333333333333</ele><time>2026-04-30T11:58:48.995Z</time></trkpt><trkpt lat="40.7583166502304" lon="9.642522065229352"><ele>56.66666666666667</ele><time>2026-04-30T11:58:49.995Z</time></trkpt><trkpt lat="40.75832506411753" lon="9.642735796094307"><ele>56.0</ele><time>2026-04-30T11:58:50.995Z</time></trkpt><trkpt lat="40.758334773024224" lon="9.642952600808119"><ele>56.0</ele><time>2026-04-30T11:58:51.995Z</time></trkpt><trkpt lat="40.75835532249918" lon="9.643173065576793"><ele>56.0</ele><time>2026-04-30T11:58:52.995Z</time></trkpt><trkpt lat="40.75839007129468" lon="9.643392181905556"><ele>56.0</ele><time>2026-04-30T11:58:53.995Z</time></trkpt><trkpt lat="40.75843553863809" lon="9.643617538764223"><ele>56.0</ele><time>2026-04-30T11:58:54.995Z</time></trkpt><trkpt lat="40.75848427884604" lon="9.64384640025615"><ele>56.0</ele><time>2026-04-30T11:58:55.995Z</time></trkpt><trkpt lat="40.758542651938406" lon="9.64407235148967"><ele>56.0</ele><time>2026-04-30T11:58:56.995Z</time></trkpt><trkpt lat="40.75860542700856" lon="9.64430754448312"><ele>54.333333333333336</ele><time>2026-04-30T11:58:57.995Z</time></trkpt><trkpt lat="40.758672593778115" lon="9.644549104311341"><ele>52.66666666666667</ele><time>2026-04-30T11:58:58.995Z</time></trkpt><trkpt lat="40.75874581967647" lon="9.644791447055464"><ele>51.0</ele><time>2026-04-30T11:58:59.995Z</time></trkpt><trkpt lat="40.75881338504027" lon="9.645012438530413"><ele>51.0</ele><time>2026-04-30T11:59:00.995Z</time></trkpt><trkpt lat="40.75886767618579" lon="9.645192511922264"><ele>51.0</ele><time>2026-04-30T11:59:01.995Z</time></trkpt><trkpt lat="40.75890388601839" lon="9.64533141169936"><ele>51.0</ele><time>2026-04-30T11:59:02.995Z</time></trkpt><trkpt lat="40.75893699058823" lon="9.645432545219023"><ele>51.0</ele><time>2026-04-30T11:59:03.995Z</time></trkpt><trkpt lat="40.7589617124701" lon="9.645532490674363"><ele>51.0</ele><time>2026-04-30T11:59:04.995Z</time></trkpt><trkpt lat="40.75899607268891" lon="9.645650328482484"><ele>49.75</ele><time>2026-04-30T11:59:05.995Z</time></trkpt><trkpt lat="40.75903958884933" lon="9.645791143912374"><ele>48.5</ele><time>2026-04-30T11:59:06.995Z</time></trkpt><trkpt lat="40.759088704519" lon="9.64595528949396"><ele>47.25</ele><time>2026-04-30T11:59:07.995Z</time></trkpt><trkpt lat="40.759144429645985" lon="9.646137527535764"><ele>46.0</ele><time>2026-04-30T11:59:08.995Z</time></trkpt><trkpt lat="40.759205181103475" lon="9.646329784888305"><ele>45.0</ele><time>2026-04-30T11:59:09.995Z</time></trkpt><trkpt lat="40.75926706521179" lon="9.646538485121196"><ele>44.0</ele><time>2026-04-30T11:59:10.995Z</time></trkpt><trkpt lat="40.75933320250236" lon="9.646758079176864"><ele>43.0</ele><time>2026-04-30T11:59:11.995Z</time></trkpt><trkpt lat="40.759406415718736" lon="9.646990818029595"><ele>42.0</ele><time>2026-04-30T11:59:12.995Z</time></trkpt><trkpt lat="40.7594755786518" lon="9.647228635628199"><ele>41.0</ele><time>2026-04-30T11:59:13.995Z</time></trkpt><trkpt lat="40.7595511442586" lon="9.647475373181807"><ele>40.0</ele><time>2026-04-30T11:59:14.995Z</time></trkpt><trkpt lat="40.75962678218091" lon="9.647720680288952"><ele>39.333333333333336</ele><time>2026-04-30T11:59:15.995Z</time></trkpt><trkpt lat="40.75968584220319" lon="9.647975468782251"><ele>38.666666666666664</ele><time>2026-04-30T11:59:16.995Z</time></trkpt><trkpt lat="40.75975910689116" lon="9.648221417130655"><ele>38.0</ele><time>2026-04-30T11:59:17.995Z</time></trkpt><trkpt lat="40.75983146663524" lon="9.648464327603"><ele>37.0</ele><time>2026-04-30T11:59:18.995Z</time></trkpt><trkpt lat="40.759904134826904" lon="9.648704016638856"><ele>36.0</ele><time>2026-04-30T11:59:19.995Z</time></trkpt><trkpt lat="40.75998272434437" lon="9.648941586618758"><ele>35.0</ele><time>2026-04-30T11:59:20.995Z</time></trkpt><trkpt lat="40.76006779386372" lon="9.649170269929256"><ele>35.0</ele><time>2026-04-30T11:59:21.995Z</time></trkpt><trkpt lat="40.76015600503725" lon="9.649399937724722"><ele>35.0</ele><time>2026-04-30T11:59:22.995Z</time></trkpt><trkpt lat="40.76024667988925" lon="9.649626396982264"><ele>35.0</ele><time>2026-04-30T11:59:23.995Z</time></trkpt><trkpt lat="40.76033788728462" lon="9.649851179473966"><ele>34.0</ele><time>2026-04-30T11:59:24.995Z</time></trkpt><trkpt lat="40.76042802300492" lon="9.650075675122041"><ele>33.0</ele><time>2026-04-30T11:59:25.995Z</time></trkpt><trkpt lat="40.760514459577834" lon="9.650291998301698"><ele>32.0</ele><time>2026-04-30T11:59:26.995Z</time></trkpt><trkpt lat="40.76059269525356" lon="9.650493802696051"><ele>32.0</ele><time>2026-04-30T11:59:27.995Z</time></trkpt><trkpt lat="40.76066155470627" lon="9.650693447093738"><ele>32.0</ele><time>2026-04-30T11:59:28.995Z</time></trkpt><trkpt lat="40.76070851419282" lon="9.650898583297304"><ele>32.0</ele><time>2026-04-30T11:59:29.995Z</time></trkpt><trkpt lat="40.76073999749609" lon="9.651106791068427"><ele>33.33333333333333</ele><time>2026-04-30T11:59:30.995Z</time></trkpt><trkpt lat="40.76076341773993" lon="9.65132780851591"><ele>34.666666666666664</ele><time>2026-04-30T11:59:31.995Z</time></trkpt><trkpt lat="40.76078065964282" lon="9.6515559870083"><ele>36.0</ele><time>2026-04-30T11:59:32.995Z</time></trkpt><trkpt lat="40.76079255880881" lon="9.651777473632764"><ele>35.666666666666664</ele><time>2026-04-30T11:59:33.995Z</time></trkpt><trkpt lat="40.76079861158529" lon="9.652002564269678"><ele>35.33333333333333</ele><time>2026-04-30T11:59:34.995Z</time></trkpt><trkpt lat="40.76079528389576" lon="9.652214006287096"><ele>35.0</ele><time>2026-04-30T11:59:35.995Z</time></trkpt><trkpt lat="40.76078059462608" lon="9.652407385681368"><ele>35.0</ele><time>2026-04-30T11:59:36.995Z</time></trkpt><trkpt lat="40.76075853798556" lon="9.652586151732878"><ele>35.0</ele><time>2026-04-30T11:59:37.995Z</time></trkpt><trkpt lat="40.760725702043324" lon="9.652759635041559"><ele>35.0</ele><time>2026-04-30T11:59:38.995Z</time></trkpt><trkpt lat="40.76068907222966" lon="9.652915436309248"><ele>35.0</ele><time>2026-04-30T11:59:39.995Z</time></trkpt><trkpt lat="40.76062776702837" lon="9.653037874285207"><ele>34.6</ele><time>2026-04-30T11:59:40.995Z</time></trkpt><trkpt lat="40.76060500694678" lon="9.653178280314638"><ele>34.2</ele><time>2026-04-30T11:59:41.995Z</time></trkpt><trkpt lat="40.760555360481476" lon="9.653291422451007"><ele>33.8</ele><time>2026-04-30T11:59:42.995Z</time></trkpt><trkpt lat="40.76052010929131" lon="9.65340834248135"><ele>33.4</ele><time>2026-04-30T11:59:43.995Z</time></trkpt><trkpt lat="40.760502926280274" lon="9.653526432136912"><ele>33.0</ele><time>2026-04-30T11:59:44.995Z</time></trkpt><trkpt lat="40.760461840019374" lon="9.65364746187573"><ele>32.0</ele><time>2026-04-30T11:59:45.995Z</time></trkpt><trkpt lat="40.76046279863835" lon="9.653792044642044"><ele>31.0</ele><time>2026-04-30T11:59:46.995Z</time></trkpt><trkpt lat="40.76045084036283" lon="9.653938757559985"><ele>30.0</ele><time>2026-04-30T11:59:47.995Z</time></trkpt><trkpt lat="40.76044098067786" lon="9.654106404451245"><ele>29.0</ele><time>2026-04-30T11:59:48.995Z</time></trkpt><trkpt lat="40.76044912788634" lon="9.654272210776256"><ele>29.0</ele><time>2026-04-30T11:59:49.995Z</time></trkpt><trkpt lat="40.76047998730687" lon="9.65444482922111"><ele>29.0</ele><time>2026-04-30T11:59:50.995Z</time></trkpt><trkpt lat="40.76051568824834" lon="9.654607688157304"><ele>29.0</ele><time>2026-04-30T11:59:51.995Z</time></trkpt><trkpt lat="40.760555636628794" lon="9.654763990558015"><ele>29.0</ele><time>2026-04-30T11:59:52.995Z</time></trkpt><trkpt lat="40.76059745517885" lon="9.654922221971397"><ele>28.75</ele><time>2026-04-30T11:59:53.994Z</time></trkpt><trkpt lat="40.76063778626752" lon="9.655073848607934"><ele>28.5</ele><time>2026-04-30T11:59:54.995Z</time></trkpt><trkpt lat="40.76067672088886" lon="9.65522326197878"><ele>28.25</ele><time>2026-04-30T11:59:55.995Z</time></trkpt><trkpt lat="40.76071643032065" lon="9.655379224885987"><ele>28.0</ele><time>2026-04-30T11:59:56.995Z</time></trkpt><trkpt lat="40.76077373162623" lon="9.655533839420396"><ele>28.0</ele><time>2026-04-30T11:59:57.994Z</time></trkpt><trkpt lat="40.76081067171485" lon="9.655698917580334"><ele>28.0</ele><time>2026-04-30T11:59:58.994Z</time></trkpt><trkpt lat="40.76085363169438" lon="9.655861355235148"><ele>28.0</ele><time>2026-04-30T11:59:59.995Z</time></trkpt><trkpt lat="40.76089287931292" lon="9.656013815768125"><ele>28.0</ele><time>2026-04-30T12:00:00.995Z</time></trkpt><trkpt lat="40.76092106719037" lon="9.656160571946689"><ele>28.4</ele><time>2026-04-30T12:00:01.995Z</time></trkpt><trkpt lat="40.760920022264564" lon="9.656303315158327"><ele>28.799999999999997</ele><time>2026-04-30T12:00:02.995Z</time></trkpt><trkpt lat="40.76091667164445" lon="9.656442859945537"><ele>29.2</ele><time>2026-04-30T12:00:03.995Z</time></trkpt><trkpt lat="40.76090576344423" lon="9.65658997881186"><ele>29.6</ele><time>2026-04-30T12:00:04.995Z</time></trkpt><trkpt lat="40.76088920795194" lon="9.65674766232271"><ele>30.0</ele><time>2026-04-30T12:00:05.994Z</time></trkpt><trkpt lat="40.76088540175165" lon="9.656916209066372"><ele>30.25</ele><time>2026-04-30T12:00:06.994Z</time></trkpt><trkpt lat="40.760857764427826" lon="9.65709044013627"><ele>30.5</ele><time>2026-04-30T12:00:07.994Z</time></trkpt><trkpt lat="40.76083892448247" lon="9.657274786881333"><ele>30.75</ele><time>2026-04-30T12:00:08.994Z</time></trkpt><trkpt lat="40.76082237111126" lon="9.657462980834723"><ele>31.0</ele><time>2026-04-30T12:00:09.994Z</time></trkpt><trkpt lat="40.76080857542586" lon="9.657649290591825"><ele>31.0</ele><time>2026-04-30T12:00:10.994Z</time></trkpt><trkpt lat="40.760801174424294" lon="9.657834972055152"><ele>31.0</ele><time>2026-04-30T12:00:11.994Z</time></trkpt><trkpt lat="40.760785347559526" lon="9.658017655105763"><ele>31.0</ele><time>2026-04-30T12:00:12.994Z</time></trkpt><trkpt lat="40.76079824896391" lon="9.658205075725403"><ele>31.0</ele><time>2026-04-30T12:00:13.994Z</time></trkpt><trkpt lat="40.760839203460485" lon="9.658389237995134"><ele>31.0</ele><time>2026-04-30T12:00:14.994Z</time></trkpt><trkpt lat="40.76086867803236" lon="9.658573686526756"><ele>31.0</ele><time>2026-04-30T12:00:15.994Z</time></trkpt><trkpt lat="40.76090277443177" lon="9.658756378898943"><ele>31.0</ele><time>2026-04-30T12:00:16.994Z</time></trkpt><trkpt lat="40.76093625743057" lon="9.658924416811923"><ele>31.0</ele><time>2026-04-30T12:00:17.994Z</time></trkpt><trkpt lat="40.760947357705135" lon="9.659088371345113"><ele>30.75</ele><time>2026-04-30T12:00:18.994Z</time></trkpt><trkpt lat="40.76097784745397" lon="9.659241376293238"><ele>30.5</ele><time>2026-04-30T12:00:19.995Z</time></trkpt><trkpt lat="40.7610183142902" lon="9.65938868813312"><ele>30.25</ele><time>2026-04-30T12:00:20.995Z</time></trkpt><trkpt lat="40.76107632386807" lon="9.659528616949371"><ele>30.0</ele><time>2026-04-30T12:00:21.995Z</time></trkpt><trkpt lat="40.761158509219165" lon="9.659642740183445"><ele>29.25</ele><time>2026-04-30T12:00:22.995Z</time></trkpt><trkpt lat="40.76123300313927" lon="9.659760633465902"><ele>28.5</ele><time>2026-04-30T12:00:23.995Z</time></trkpt><trkpt lat="40.76131527645613" lon="9.659876775828433"><ele>27.75</ele><time>2026-04-30T12:00:24.995Z</time></trkpt><trkpt lat="40.76139683088336" lon="9.6599897155463"><ele>27.0</ele><time>2026-04-30T12:00:25.995Z</time></trkpt><trkpt lat="40.76148020391914" lon="9.66010297479002"><ele>27.0</ele><time>2026-04-30T12:00:26.995Z</time></trkpt><trkpt lat="40.76156540544869" lon="9.660217799028215"><ele>27.0</ele><time>2026-04-30T12:00:27.995Z</time></trkpt><trkpt lat="40.761639892881504" lon="9.660348511811822"><ele>27.0</ele><time>2026-04-30T12:00:28.995Z</time></trkpt><trkpt lat="40.76173023210354" lon="9.66048011121542"><ele>27.0</ele><time>2026-04-30T12:00:29.995Z</time></trkpt><trkpt lat="40.76182850345105" lon="9.660622047867658"><ele>26.0</ele><time>2026-04-30T12:00:30.995Z</time></trkpt><trkpt lat="40.76193595927917" lon="9.660769348268209"><ele>25.0</ele><time>2026-04-30T12:00:31.995Z</time></trkpt><trkpt lat="40.76204545008146" lon="9.66092182440974"><ele>24.0</ele><time>2026-04-30T12:00:32.995Z</time></trkpt><trkpt lat="40.76215705699193" lon="9.661076337289904"><ele>23.666666666666668</ele><time>2026-04-30T12:00:33.995Z</time></trkpt><trkpt lat="40.762271841575824" lon="9.661230241113433"><ele>23.333333333333336</ele><time>2026-04-30T12:00:34.995Z</time></trkpt><trkpt lat="40.76238594412061" lon="9.661388703524542"><ele>23.0</ele><time>2026-04-30T12:00:35.995Z</time></trkpt><trkpt lat="40.762500375310466" lon="9.661545701715365"><ele>23.0</ele><time>2026-04-30T12:00:36.995Z</time></trkpt><trkpt lat="40.76261472265958" lon="9.661704010442438"><ele>23.0</ele><time>2026-04-30T12:00:37.995Z</time></trkpt><trkpt lat="40.76271696410102" lon="9.661879568107732"><ele>23.0</ele><time>2026-04-30T12:00:38.995Z</time></trkpt><trkpt lat="40.7628313318285" lon="9.662042465352025"><ele>22.666666666666668</ele><time>2026-04-30T12:00:39.995Z</time></trkpt><trkpt lat="40.762946574241475" lon="9.6622066084017"><ele>22.333333333333332</ele><time>2026-04-30T12:00:40.995Z</time></trkpt><trkpt lat="40.763059331970936" lon="9.662367212650896"><ele>22.0</ele><time>2026-04-30T12:00:41.995Z</time></trkpt><trkpt lat="40.7631705809977" lon="9.662525667884491"><ele>22.0</ele><time>2026-04-30T12:00:42.995Z</time></trkpt><trkpt lat="40.76327873074736" lon="9.66267970867504"><ele>22.0</ele><time>2026-04-30T12:00:43.995Z</time></trkpt><trkpt lat="40.76338694642808" lon="9.66283306662652"><ele>22.0</ele><time>2026-04-30T12:00:44.995Z</time></trkpt><trkpt lat="40.76349480483591" lon="9.662984964597655"><ele>21.75</ele><time>2026-04-30T12:00:45.995Z</time></trkpt><trkpt lat="40.76359826551652" lon="9.663130669147897"><ele>21.5</ele><time>2026-04-30T12:00:46.995Z</time></trkpt><trkpt lat="40.763692692594596" lon="9.663263651573878"><ele>21.25</ele><time>2026-04-30T12:00:47.995Z</time></trkpt><trkpt lat="40.763786079576334" lon="9.663363771441595"><ele>21.0</ele><time>2026-04-30T12:00:48.995Z</time></trkpt><trkpt lat="40.76385468180036" lon="9.663465408970668"><ele>21.0</ele><time>2026-04-30T12:00:49.995Z</time></trkpt><trkpt lat="40.763904395848535" lon="9.663557121192435"><ele>21.0</ele><time>2026-04-30T12:00:50.995Z</time></trkpt><trkpt lat="40.7639571981046" lon="9.663630281344744"><ele>21.0</ele><time>2026-04-30T12:00:51.995Z</time></trkpt><trkpt lat="40.76400289756904" lon="9.663694658832224"><ele>21.0</ele><time>2026-04-30T12:00:52.995Z</time></trkpt><trkpt lat="40.76407066190279" lon="9.663786296169036"><ele>21.0</ele><time>2026-04-30T12:00:54.995Z</time></trkpt><trkpt lat="40.76412909194439" lon="9.663860501608081"><ele>21.0</ele><time>2026-04-30T12:00:57.995Z</time></trkpt><trkpt lat="40.76405253367726" lon="9.663767857706608"><ele>21.0</ele><time>2026-04-30T12:01:26.995Z</time></trkpt><trkpt lat="40.76405746908586" lon="9.663627654809806"><ele>21.0</ele><time>2026-04-30T12:01:27.995Z</time></trkpt><trkpt lat="40.76400109766447" lon="9.663549992793355"><ele>21.0</ele><time>2026-04-30T12:01:28.995Z</time></trkpt><trkpt lat="40.76393329694625" lon="9.663459974475536"><ele>21.0</ele><time>2026-04-30T12:01:29.995Z</time></trkpt><trkpt lat="40.76385896658159" lon="9.663357164764449"><ele>21.0</ele><time>2026-04-30T12:01:30.995Z</time></trkpt><trkpt lat="40.763759150067415" lon="9.663260941409105"><ele>21.0</ele><time>2026-04-30T12:01:31.995Z</time></trkpt><trkpt lat="40.76366888236819" lon="9.663133816598283"><ele>21.0</ele><time>2026-04-30T12:01:32.995Z</time></trkpt><trkpt lat="40.76357073526369" lon="9.66299200623546"><ele>21.0</ele><time>2026-04-30T12:01:33.995Z</time></trkpt><trkpt lat="40.76346900258588" lon="9.662847841037808"><ele>21.0</ele><time>2026-04-30T12:01:34.995Z</time></trkpt><trkpt lat="40.763364936073756" lon="9.662700961930119"><ele>21.25</ele><time>2026-04-30T12:01:35.995Z</time></trkpt><trkpt lat="40.76326093020587" lon="9.662552000601377"><ele>21.5</ele><time>2026-04-30T12:01:36.995Z</time></trkpt><trkpt lat="40.76315951773623" lon="9.66240683554628"><ele>21.75</ele><time>2026-04-30T12:01:37.995Z</time></trkpt><trkpt lat="40.76306196818727" lon="9.662264322610046"><ele>22.0</ele><time>2026-04-30T12:01:38.995Z</time></trkpt><trkpt lat="40.762965775143186" lon="9.662129611442518"><ele>22.0</ele><time>2026-04-30T12:01:39.995Z</time></trkpt><trkpt lat="40.76287550134371" lon="9.66199837114714"><ele>22.0</ele><time>2026-04-30T12:01:40.995Z</time></trkpt><trkpt lat="40.762785335456286" lon="9.66187151439928"><ele>22.0</ele><time>2026-04-30T12:01:41.995Z</time></trkpt><trkpt lat="40.76269387256448" lon="9.661746851379094"><ele>22.0</ele><time>2026-04-30T12:01:42.995Z</time></trkpt><trkpt lat="40.76260090544032" lon="9.661620205421839"><ele>22.25</ele><time>2026-04-30T12:01:43.995Z</time></trkpt><trkpt lat="40.762511806784886" lon="9.661492073495056"><ele>22.5</ele><time>2026-04-30T12:01:44.995Z</time></trkpt><trkpt lat="40.76242125609235" lon="9.66136057176017"><ele>22.75</ele><time>2026-04-30T12:01:45.995Z</time></trkpt><trkpt lat="40.76232959672988" lon="9.661227412921686"><ele>23.0</ele><time>2026-04-30T12:01:46.995Z</time></trkpt><trkpt lat="40.76223587222741" lon="9.661094809100337"><ele>23.25</ele><time>2026-04-30T12:01:47.995Z</time></trkpt><trkpt lat="40.762140649122834" lon="9.660958512071929"><ele>23.5</ele><time>2026-04-30T12:01:48.995Z</time></trkpt><trkpt lat="40.76204334683057" lon="9.660823974235267"><ele>23.75</ele><time>2026-04-30T12:01:49.995Z</time></trkpt><trkpt lat="40.76194306095027" lon="9.660687816227057"><ele>24.0</ele><time>2026-04-30T12:01:50.995Z</time></trkpt><trkpt lat="40.76184130603232" lon="9.660543793677094"><ele>24.0</ele><time>2026-04-30T12:01:51.995Z</time></trkpt><trkpt lat="40.76173934538969" lon="9.660399838408159"><ele>24.0</ele><time>2026-04-30T12:01:52.995Z</time></trkpt><trkpt lat="40.76163871876441" lon="9.660260677336087"><ele>24.0</ele><time>2026-04-30T12:01:53.995Z</time></trkpt><trkpt lat="40.761545445927176" lon="9.660125407283042"><ele>24.0</ele><time>2026-04-30T12:01:54.995Z</time></trkpt><trkpt lat="40.76145532147258" lon="9.65999112494357"><ele>24.75</ele><time>2026-04-30T12:01:55.995Z</time></trkpt><trkpt lat="40.76136785583831" lon="9.659863312107138"><ele>25.5</ele><time>2026-04-30T12:01:56.995Z</time></trkpt><trkpt lat="40.76128617124401" lon="9.659741067472993"><ele>26.25</ele><time>2026-04-30T12:01:57.995Z</time></trkpt><trkpt lat="40.7612129036947" lon="9.659624310757982"><ele>27.0</ele><time>2026-04-30T12:01:58.995Z</time></trkpt><trkpt lat="40.76114675941723" lon="9.659504349234622"><ele>27.0</ele><time>2026-04-30T12:01:59.995Z</time></trkpt><trkpt lat="40.761092722708376" lon="9.659372376993765"><ele>27.0</ele><time>2026-04-30T12:02:00.995Z</time></trkpt><trkpt lat="40.76104743978021" lon="9.659227586788054"><ele>27.0</ele><time>2026-04-30T12:02:01.995Z</time></trkpt><trkpt lat="40.76099620773327" lon="9.659074488022148"><ele>27.0</ele><time>2026-04-30T12:02:02.995Z</time></trkpt><trkpt lat="40.760979418750885" lon="9.658900983138027"><ele>27.75</ele><time>2026-04-30T12:02:03.995Z</time></trkpt><trkpt lat="40.76094854761178" lon="9.658723521469948"><ele>28.5</ele><time>2026-04-30T12:02:04.995Z</time></trkpt><trkpt lat="40.760917684613055" lon="9.658539670746931"><ele>29.25</ele><time>2026-04-30T12:02:05.995Z</time></trkpt><trkpt lat="40.7608699090138" lon="9.65835385939306"><ele>30.0</ele><time>2026-04-30T12:02:06.995Z</time></trkpt><trkpt lat="40.76084420787341" lon="9.65815467794459"><ele>30.333333333333336</ele><time>2026-04-30T12:02:07.995Z</time></trkpt><trkpt lat="40.760834044783586" lon="9.657952923047757"><ele>30.666666666666668</ele><time>2026-04-30T12:02:08.995Z</time></trkpt><trkpt lat="40.76085873106474" lon="9.65774549974947"><ele>31.0</ele><time>2026-04-30T12:02:09.994Z</time></trkpt><trkpt lat="40.76087579269541" lon="9.657538929421966"><ele>31.0</ele><time>2026-04-30T12:02:10.994Z</time></trkpt><trkpt lat="40.760895455903835" lon="9.657331051318245"><ele>31.0</ele><time>2026-04-30T12:02:11.996Z</time></trkpt><trkpt lat="40.76089975278916" lon="9.65712972013013"><ele>31.0</ele><time>2026-04-30T12:02:12.995Z</time></trkpt><trkpt lat="40.76093507360429" lon="9.656938381323165"><ele>30.75</ele><time>2026-04-30T12:02:13.995Z</time></trkpt><trkpt lat="40.76095240004683" lon="9.656739350155162"><ele>30.5</ele><time>2026-04-30T12:02:14.995Z</time></trkpt><trkpt lat="40.76096744900121" lon="9.656538834159171"><ele>30.25</ele><time>2026-04-30T12:02:15.995Z</time></trkpt><trkpt lat="40.76096451339846" lon="9.656352694590979"><ele>30.0</ele><time>2026-04-30T12:02:16.995Z</time></trkpt><trkpt lat="40.76094983926184" lon="9.656162886573796"><ele>29.5</ele><time>2026-04-30T12:02:17.995Z</time></trkpt><trkpt lat="40.760921712681544" lon="9.655975084490793"><ele>29.0</ele><time>2026-04-30T12:02:18.995Z</time></trkpt><trkpt lat="40.76087967501051" lon="9.655787092822582"><ele>28.5</ele><time>2026-04-30T12:02:19.995Z</time></trkpt><trkpt lat="40.76083142088023" lon="9.655601785886462"><ele>28.0</ele><time>2026-04-30T12:02:20.995Z</time></trkpt><trkpt lat="40.76078243174057" lon="9.655409967630133"><ele>27.333333333333336</ele><time>2026-04-30T12:02:21.995Z</time></trkpt><trkpt lat="40.76073314387049" lon="9.65521943768203"><ele>26.666666666666664</ele><time>2026-04-30T12:02:22.995Z</time></trkpt><trkpt lat="40.76068198046833" lon="9.655024480124583"><ele>26.0</ele><time>2026-04-30T12:02:23.995Z</time></trkpt><trkpt lat="40.760633280314295" lon="9.65483878255287"><ele>26.0</ele><time>2026-04-30T12:02:24.995Z</time></trkpt><trkpt lat="40.76058874231065" lon="9.654660782433403"><ele>26.0</ele><time>2026-04-30T12:02:25.995Z</time></trkpt><trkpt lat="40.76055031432096" lon="9.65449237689839"><ele>26.0</ele><time>2026-04-30T12:02:26.995Z</time></trkpt><trkpt lat="40.76052362197484" lon="9.654332574724311"><ele>26.0</ele><time>2026-04-30T12:02:27.995Z</time></trkpt><trkpt lat="40.760493489655694" lon="9.654184987494833"><ele>26.6</ele><time>2026-04-30T12:02:28.995Z</time></trkpt><trkpt lat="40.760491460023005" lon="9.65404404870711"><ele>27.200000000000003</ele><time>2026-04-30T12:02:29.995Z</time></trkpt><trkpt lat="40.76050502796984" lon="9.653915487417086"><ele>27.799999999999997</ele><time>2026-04-30T12:02:30.995Z</time></trkpt><trkpt lat="40.7605617380428" lon="9.653785788851906"><ele>28.4</ele><time>2026-04-30T12:02:31.995Z</time></trkpt><trkpt lat="40.76062292413976" lon="9.653695907749334"><ele>29.0</ele><time>2026-04-30T12:02:32.995Z</time></trkpt><trkpt lat="40.760714112950815" lon="9.653650887847085"><ele>29.0</ele><time>2026-04-30T12:02:33.995Z</time></trkpt><trkpt lat="40.76076988676179" lon="9.653575820590564"><ele>29.0</ele><time>2026-04-30T12:02:34.995Z</time></trkpt><trkpt lat="40.7608686249141" lon="9.653634273830257"><ele>29.0</ele><time>2026-04-30T12:02:35.995Z</time></trkpt><trkpt lat="40.760942505727044" lon="9.653674148794614"><ele>29.0</ele><time>2026-04-30T12:02:36.995Z</time></trkpt><trkpt lat="40.76102856963004" lon="9.653720438588387"><ele>29.0</ele><time>2026-04-30T12:02:37.995Z</time></trkpt><trkpt lat="40.761123733981826" lon="9.653768535321424"><ele>29.25</ele><time>2026-04-30T12:02:38.995Z</time></trkpt><trkpt lat="40.761233604241134" lon="9.653797619828701"><ele>29.5</ele><time>2026-04-30T12:02:39.995Z</time></trkpt><trkpt lat="40.761345261417524" lon="9.653851422003921"><ele>29.75</ele><time>2026-04-30T12:02:40.995Z</time></trkpt><trkpt lat="40.761471464759815" lon="9.653902436627225"><ele>30.0</ele><time>2026-04-30T12:02:41.995Z</time></trkpt><trkpt lat="40.761600150513665" lon="9.653944669164819"><ele>30.0</ele><time>2026-04-30T12:02:42.995Z</time></trkpt><trkpt lat="40.7617204041757" lon="9.653974057914981"><ele>30.0</ele><time>2026-04-30T12:02:43.995Z</time></trkpt><trkpt lat="40.76182828281431" lon="9.653992784670729"><ele>30.0</ele><time>2026-04-30T12:02:44.995Z</time></trkpt><trkpt lat="40.76192084153722" lon="9.654006058620125"><ele>30.0</ele><time>2026-04-30T12:02:45.995Z</time></trkpt><trkpt lat="40.76199433911029" lon="9.65401749820642"><ele>30.0</ele><time>2026-04-30T12:02:46.995Z</time></trkpt><trkpt lat="40.762093726280334" lon="9.654034174700291"><ele>29.833333333333332</ele><time>2026-04-30T12:02:48.995Z</time></trkpt><trkpt lat="40.76216565146353" lon="9.654039707787375"><ele>29.666666666666664</ele><time>2026-04-30T12:02:59.995Z</time></trkpt><trkpt lat="40.76226099480022" lon="9.65402942793579"><ele>29.5</ele><time>2026-04-30T12:04:31.995Z</time></trkpt><trkpt lat="40.76237900133674" lon="9.65404923556618"><ele>29.333333333333332</ele><time>2026-04-30T12:04:33.995Z</time></trkpt><trkpt lat="40.76244472401843" lon="9.654053709335072"><ele>29.166666666666664</ele><time>2026-04-30T12:04:34.995Z</time></trkpt><trkpt lat="40.76251180602299" lon="9.654057711215396"><ele>29.0</ele><time>2026-04-30T12:04:35.995Z</time></trkpt><trkpt lat="40.7625782970552" lon="9.654064094724303"><ele>28.999999999999996</ele><time>2026-04-30T12:04:36.995Z</time></trkpt><trkpt lat="40.762649796695975" lon="9.654075049473319"><ele>29.0</ele><time>2026-04-30T12:04:37.995Z</time></trkpt><trkpt lat="40.76272336769568" lon="9.65408311478912"><ele>29.0</ele><time>2026-04-30T12:04:38.995Z</time></trkpt><trkpt lat="40.762795642472376" lon="9.654087889171933"><ele>29.0</ele><time>2026-04-30T12:04:39.995Z</time></trkpt><trkpt lat="40.7628738538044" lon="9.654096579569982"><ele>28.999999999999996</ele><time>2026-04-30T12:04:40.995Z</time></trkpt><trkpt lat="40.76295168054744" lon="9.654106772623168"><ele>29.0</ele><time>2026-04-30T12:04:41.995Z</time></trkpt><trkpt lat="40.76302862779111" lon="9.654113740964364"><ele>28.333333333333332</ele><time>2026-04-30T12:04:42.995Z</time></trkpt><trkpt lat="40.76311251140457" lon="9.654121502941114"><ele>27.666666666666664</ele><time>2026-04-30T12:04:43.995Z</time></trkpt><trkpt lat="40.76319554765544" lon="9.654131142882683"><ele>27.0</ele><time>2026-04-30T12:04:44.995Z</time></trkpt><trkpt lat="40.7632771946475" lon="9.654139908030201"><ele>26.333333333333336</ele><time>2026-04-30T12:04:45.995Z</time></trkpt><trkpt lat="40.76335968189158" lon="9.65414909373993"><ele>25.666666666666668</ele><time>2026-04-30T12:04:46.995Z</time></trkpt><trkpt lat="40.76343916563296" lon="9.654158018201706"><ele>25.0</ele><time>2026-04-30T12:04:47.995Z</time></trkpt><trkpt lat="40.76351646803243" lon="9.654167636758874"><ele>25.500000000000004</ele><time>2026-04-30T12:04:48.995Z</time></trkpt><trkpt lat="40.76359484444569" lon="9.654176214617145"><ele>26.0</ele><time>2026-04-30T12:04:49.995Z</time></trkpt><trkpt lat="40.763672333385486" lon="9.654184022619502"><ele>26.5</ele><time>2026-04-30T12:04:50.995Z</time></trkpt><trkpt lat="40.763750560971076" lon="9.65419227928762"><ele>27.0</ele><time>2026-04-30T12:04:51.995Z</time></trkpt><trkpt lat="40.76382664500405" lon="9.654200441640114"><ele>27.500000000000004</ele><time>2026-04-30T12:04:52.995Z</time></trkpt><trkpt lat="40.763905115515655" lon="9.65420872774506"><ele>28.0</ele><time>2026-04-30T12:04:53.995Z</time></trkpt><trkpt lat="40.76398486064991" lon="9.654217275942552"><ele>28.000000000000004</ele><time>2026-04-30T12:04:54.995Z</time></trkpt><trkpt lat="40.764069612051934" lon="9.654225774761722"><ele>28.0</ele><time>2026-04-30T12:04:55.995Z</time></trkpt><trkpt lat="40.76415066196874" lon="9.65423280922556"><ele>28.0</ele><time>2026-04-30T12:04:56.995Z</time></trkpt><trkpt lat="40.76423094538245" lon="9.654241467726258"><ele>28.0</ele><time>2026-04-30T12:04:57.995Z</time></trkpt><trkpt lat="40.76431310674203" lon="9.654252318490608"><ele>28.000000000000004</ele><time>2026-04-30T12:04:58.995Z</time></trkpt><trkpt lat="40.7643833326323" lon="9.654257678549126"><ele>28.0</ele><time>2026-04-30T12:04:59.995Z</time></trkpt><trkpt lat="40.76444760871864" lon="9.65426829202547"><ele>28.666666666666668</ele><time>2026-04-30T12:05:00.995Z</time></trkpt><trkpt lat="40.76451966255249" lon="9.654275225504025"><ele>29.333333333333336</ele><time>2026-04-30T12:05:01.995Z</time></trkpt><trkpt lat="40.76459934530709" lon="9.65428356903451"><ele>30.0</ele><time>2026-04-30T12:05:02.995Z</time></trkpt><trkpt lat="40.76468336123449" lon="9.654292166244314"><ele>30.666666666666664</ele><time>2026-04-30T12:05:03.995Z</time></trkpt><trkpt lat="40.764783449803396" lon="9.65430085496702"><ele>31.333333333333332</ele><time>2026-04-30T12:05:04.995Z</time></trkpt><trkpt lat="40.764889574064384" lon="9.654312345681294"><ele>32.0</ele><time>2026-04-30T12:05:05.995Z</time></trkpt><trkpt lat="40.76499607296143" lon="9.654320268234724"><ele>32.0</ele><time>2026-04-30T12:05:06.995Z</time></trkpt><trkpt lat="40.76510272728575" lon="9.654330530579323"><ele>32.0</ele><time>2026-04-30T12:05:07.995Z</time></trkpt><trkpt lat="40.765209671080555" lon="9.65433993987563"><ele>32.0</ele><time>2026-04-30T12:05:08.995Z</time></trkpt><trkpt lat="40.765310583973296" lon="9.654352622019182"><ele>32.0</ele><time>2026-04-30T12:05:09.995Z</time></trkpt><trkpt lat="40.76540910994066" lon="9.65436657963335"><ele>32.0</ele><time>2026-04-30T12:05:10.995Z</time></trkpt><trkpt lat="40.765503078300775" lon="9.654375754232493"><ele>31.999999999999996</ele><time>2026-04-30T12:05:11.995Z</time></trkpt><trkpt lat="40.765585207515535" lon="9.654383697068068"><ele>32.0</ele><time>2026-04-30T12:05:12.995Z</time></trkpt><trkpt lat="40.76565659309531" lon="9.654393658907313"><ele>32.0</ele><time>2026-04-30T12:05:13.995Z</time></trkpt><trkpt lat="40.76575882969063" lon="9.654425543263033"><ele>32.0</ele><time>2026-04-30T12:05:15.995Z</time></trkpt><trkpt lat="40.76584097420805" lon="9.654476201864066"><ele>31.999999999999996</ele><time>2026-04-30T12:05:17.995Z</time></trkpt><trkpt lat="40.76591930746103" lon="9.654527641189746"><ele>32.0</ele><time>2026-04-30T12:05:20.995Z</time></trkpt><trkpt lat="40.76598365383695" lon="9.65459991957058"><ele>31.833333333333332</ele><time>2026-04-30T12:05:25.995Z</time></trkpt><trkpt lat="40.765968034691404" lon="9.654516574744916"><ele>31.666666666666664</ele><time>2026-04-30T12:09:05.995Z</time></trkpt><trkpt lat="40.76607328954211" lon="9.654513952790161"><ele>31.5</ele><time>2026-04-30T12:09:08.995Z</time></trkpt><trkpt lat="40.766156137237026" lon="9.654494938456791"><ele>31.333333333333336</ele><time>2026-04-30T12:09:10.995Z</time></trkpt><trkpt lat="40.76625077202155" lon="9.654456798869788"><ele>31.166666666666668</ele><time>2026-04-30T12:09:12.995Z</time></trkpt><trkpt lat="40.766314489540555" lon="9.65446050623242"><ele>31.0</ele><time>2026-04-30T12:09:13.995Z</time></trkpt><trkpt lat="40.76639426643639" lon="9.654468159200297"><ele>31.0</ele><time>2026-04-30T12:09:14.995Z</time></trkpt><trkpt lat="40.76648758365704" lon="9.654481490408491"><ele>31.0</ele><time>2026-04-30T12:09:15.995Z</time></trkpt><trkpt lat="40.766586234136284" lon="9.65449752235767"><ele>31.0</ele><time>2026-04-30T12:09:16.995Z</time></trkpt><trkpt lat="40.76668817190736" lon="9.654508676063982"><ele>31.0</ele><time>2026-04-30T12:09:17.995Z</time></trkpt><trkpt lat="40.76680050292561" lon="9.654517708032508"><ele>31.0</ele><time>2026-04-30T12:09:18.995Z</time></trkpt><trkpt lat="40.766924373232385" lon="9.65452587328762"><ele>31.0</ele><time>2026-04-30T12:09:19.995Z</time></trkpt><trkpt lat="40.76705316642309" lon="9.65453521439796"><ele>31.0</ele><time>2026-04-30T12:09:20.995Z</time></trkpt><trkpt lat="40.76718205640353" lon="9.654537540131814"><ele>31.0</ele><time>2026-04-30T12:09:21.995Z</time></trkpt><trkpt lat="40.76731943266528" lon="9.654534935672887"><ele>31.0</ele><time>2026-04-30T12:09:22.995Z</time></trkpt><trkpt lat="40.76746778768433" lon="9.654524582089211"><ele>31.0</ele><time>2026-04-30T12:09:23.995Z</time></trkpt><trkpt lat="40.767619731343444" lon="9.654507597246164"><ele>31.0</ele><time>2026-04-30T12:09:24.995Z</time></trkpt><trkpt lat="40.767780465327924" lon="9.65448620299926"><ele>31.0</ele><time>2026-04-30T12:09:25.995Z</time></trkpt><trkpt lat="40.767944500897784" lon="9.654469319041029"><ele>30.333333333333336</ele><time>2026-04-30T12:09:26.995Z</time></trkpt><trkpt lat="40.768106909441904" lon="9.654450085347827"><ele>29.666666666666664</ele><time>2026-04-30T12:09:27.995Z</time></trkpt><trkpt lat="40.76826967916471" lon="9.654429704884057"><ele>29.0</ele><time>2026-04-30T12:09:28.995Z</time></trkpt><trkpt lat="40.76842939131726" lon="9.65441267272032"><ele>28.25</ele><time>2026-04-30T12:09:29.995Z</time></trkpt><trkpt lat="40.76858281796041" lon="9.654401274889631"><ele>27.5</ele><time>2026-04-30T12:09:30.995Z</time></trkpt><trkpt lat="40.76873148523861" lon="9.654381988206657"><ele>26.75</ele><time>2026-04-30T12:09:31.995Z</time></trkpt><trkpt lat="40.76887728010095" lon="9.654365493872668"><ele>26.0</ele><time>2026-04-30T12:09:32.995Z</time></trkpt><trkpt lat="40.76902609010237" lon="9.6543433079861"><ele>26.0</ele><time>2026-04-30T12:09:33.995Z</time></trkpt><trkpt lat="40.76917143177451" lon="9.654328331191325"><ele>26.0</ele><time>2026-04-30T12:09:34.995Z</time></trkpt><trkpt lat="40.76932157012339" lon="9.654313702259287"><ele>26.0</ele><time>2026-04-30T12:09:35.995Z</time></trkpt><trkpt lat="40.76947197810725" lon="9.654298819563804"><ele>26.0</ele><time>2026-04-30T12:09:36.995Z</time></trkpt><trkpt lat="40.769620874120676" lon="9.654286737967839"><ele>25.0</ele><time>2026-04-30T12:09:37.995Z</time></trkpt><trkpt lat="40.769769219465935" lon="9.654270571318056"><ele>24.0</ele><time>2026-04-30T12:09:38.995Z</time></trkpt><trkpt lat="40.769905884316955" lon="9.654257808719263"><ele>23.0</ele><time>2026-04-30T12:09:39.995Z</time></trkpt><trkpt lat="40.770032529682496" lon="9.654251579104994"><ele>22.0</ele><time>2026-04-30T12:09:40.995Z</time></trkpt><trkpt lat="40.77015306042048" lon="9.65425330793195"><ele>21.5</ele><time>2026-04-30T12:09:41.995Z</time></trkpt><trkpt lat="40.77027063725609" lon="9.654272066225458"><ele>21.0</ele><time>2026-04-30T12:09:42.995Z</time></trkpt><trkpt lat="40.77038866109736" lon="9.654308305024566"><ele>20.5</ele><time>2026-04-30T12:09:43.995Z</time></trkpt><trkpt lat="40.77051348071554" lon="9.654376829208525"><ele>20.0</ele><time>2026-04-30T12:09:44.995Z</time></trkpt><trkpt lat="40.770646416577314" lon="9.65443644131133"><ele>19.0</ele><time>2026-04-30T12:09:45.995Z</time></trkpt><trkpt lat="40.77078151944872" lon="9.65450436283395"><ele>18.0</ele><time>2026-04-30T12:09:46.995Z</time></trkpt><trkpt lat="40.7709251014529" lon="9.654574034488116"><ele>17.0</ele><time>2026-04-30T12:09:47.995Z</time></trkpt><trkpt lat="40.771074093224115" lon="9.65464672942138"><ele>17.0</ele><time>2026-04-30T12:09:48.995Z</time></trkpt><trkpt lat="40.771216722717774" lon="9.65472145431256"><ele>17.0</ele><time>2026-04-30T12:09:49.995Z</time></trkpt><trkpt lat="40.7713623842931" lon="9.654798987756143"><ele>17.0</ele><time>2026-04-30T12:09:50.995Z</time></trkpt><trkpt lat="40.77150539763373" lon="9.654876429841801"><ele>17.0</ele><time>2026-04-30T12:09:51.995Z</time></trkpt><trkpt lat="40.7716528571703" lon="9.654952961010041"><ele>17.0</ele><time>2026-04-30T12:09:52.995Z</time></trkpt><trkpt lat="40.77179961608987" lon="9.65502787504152"><ele>17.0</ele><time>2026-04-30T12:09:53.995Z</time></trkpt><trkpt lat="40.771946765345" lon="9.65510653420251"><ele>16.333333333333336</ele><time>2026-04-30T12:09:54.995Z</time></trkpt><trkpt lat="40.77209434281694" lon="9.655182944645876"><ele>15.666666666666668</ele><time>2026-04-30T12:09:55.995Z</time></trkpt><trkpt lat="40.772239116905496" lon="9.655256504341589"><ele>15.0</ele><time>2026-04-30T12:09:56.995Z</time></trkpt><trkpt lat="40.77238343265057" lon="9.655331355198292"><ele>14.5</ele><time>2026-04-30T12:09:57.995Z</time></trkpt><trkpt lat="40.77252500966388" lon="9.655405514227038"><ele>14.0</ele><time>2026-04-30T12:09:58.995Z</time></trkpt><trkpt lat="40.77267236443905" lon="9.655476823790709"><ele>13.5</ele><time>2026-04-30T12:09:59.995Z</time></trkpt><trkpt lat="40.77280121553647" lon="9.655545981933846"><ele>13.0</ele><time>2026-04-30T12:10:00.995Z</time></trkpt><trkpt lat="40.772930049799335" lon="9.655611417958546"><ele>13.0</ele><time>2026-04-30T12:10:01.995Z</time></trkpt><trkpt lat="40.773050022939714" lon="9.655674947677698"><ele>13.0</ele><time>2026-04-30T12:10:02.995Z</time></trkpt><trkpt lat="40.77317161256241" lon="9.655740088052175"><ele>13.0</ele><time>2026-04-30T12:10:03.995Z</time></trkpt><trkpt lat="40.77329103425818" lon="9.655809597219807"><ele>13.0</ele><time>2026-04-30T12:10:04.995Z</time></trkpt><trkpt lat="40.773419689764744" lon="9.655864620691679"><ele>13.25</ele><time>2026-04-30T12:10:05.995Z</time></trkpt><trkpt lat="40.77354887303614" lon="9.6559218917904"><ele>13.5</ele><time>2026-04-30T12:10:06.995Z</time></trkpt><trkpt lat="40.77367114744095" lon="9.655981515854773"><ele>13.75</ele><time>2026-04-30T12:10:07.995Z</time></trkpt><trkpt lat="40.773793857541165" lon="9.656035328780714"><ele>14.0</ele><time>2026-04-30T12:10:08.995Z</time></trkpt><trkpt lat="40.77391538249384" lon="9.65608247550893"><ele>14.0</ele><time>2026-04-30T12:10:09.995Z</time></trkpt><trkpt lat="40.774033500306835" lon="9.6561176736496"><ele>14.0</ele><time>2026-04-30T12:10:10.995Z</time></trkpt><trkpt lat="40.77414879869536" lon="9.656151173498039"><ele>14.0</ele><time>2026-04-30T12:10:11.995Z</time></trkpt><trkpt lat="40.7742540403423" lon="9.656186319040046"><ele>14.0</ele><time>2026-04-30T12:10:12.995Z</time></trkpt><trkpt lat="40.77435713569012" lon="9.656220979160594"><ele>13.2</ele><time>2026-04-30T12:10:13.995Z</time></trkpt><trkpt lat="40.774456915025304" lon="9.656251858296775"><ele>12.399999999999999</ele><time>2026-04-30T12:10:14.995Z</time></trkpt><trkpt lat="40.77455106820248" lon="9.656284379830128"><ele>11.6</ele><time>2026-04-30T12:10:15.995Z</time></trkpt><trkpt lat="40.77463941137209" lon="9.656311770038007"><ele>10.8</ele><time>2026-04-30T12:10:16.995Z</time></trkpt><trkpt lat="40.77472472940784" lon="9.656335835063478"><ele>10.0</ele><time>2026-04-30T12:10:17.995Z</time></trkpt><trkpt lat="40.7748150703436" lon="9.656363014988498"><ele>10.0</ele><time>2026-04-30T12:10:18.995Z</time></trkpt><trkpt lat="40.77490840624332" lon="9.656395887444857"><ele>10.0</ele><time>2026-04-30T12:10:19.995Z</time></trkpt><trkpt lat="40.77501103876872" lon="9.65644001051461"><ele>10.0</ele><time>2026-04-30T12:10:20.995Z</time></trkpt><trkpt lat="40.7751159021352" lon="9.656478711784894"><ele>10.0</ele><time>2026-04-30T12:10:21.995Z</time></trkpt><trkpt lat="40.77522635387504" lon="9.656514152772246"><ele>10.0</ele><time>2026-04-30T12:10:22.995Z</time></trkpt><trkpt lat="40.77533523680464" lon="9.656547347835556"><ele>10.25</ele><time>2026-04-30T12:10:23.993Z</time></trkpt><trkpt lat="40.775448478521746" lon="9.656585586803336"><ele>10.5</ele><time>2026-04-30T12:10:24.994Z</time></trkpt><trkpt lat="40.77556524563101" lon="9.656626744772593"><ele>10.75</ele><time>2026-04-30T12:10:25.994Z</time></trkpt><trkpt lat="40.77567810510833" lon="9.656666298463204"><ele>11.0</ele><time>2026-04-30T12:10:26.994Z</time></trkpt><trkpt lat="40.77578498843518" lon="9.656701914846861"><ele>11.0</ele><time>2026-04-30T12:10:27.994Z</time></trkpt><trkpt lat="40.77588422193298" lon="9.656736623943361"><ele>11.0</ele><time>2026-04-30T12:10:28.994Z</time></trkpt><trkpt lat="40.77598135754764" lon="9.656767560820418"><ele>11.0</ele><time>2026-04-30T12:10:29.993Z</time></trkpt><trkpt lat="40.7760732127225" lon="9.656794813705993"><ele>11.0</ele><time>2026-04-30T12:10:30.994Z</time></trkpt><trkpt lat="40.776151001005594" lon="9.656815333268943"><ele>11.0</ele><time>2026-04-30T12:10:31.994Z</time></trkpt><trkpt lat="40.77621513807517" lon="9.656832102688876"><ele>11.0</ele><time>2026-04-30T12:10:32.994Z</time></trkpt><trkpt lat="40.77630189667859" lon="9.656854740776765"><ele>10.833333333333332</ele><time>2026-04-30T12:10:34.993Z</time></trkpt><trkpt lat="40.77638666066232" lon="9.656915709203886"><ele>10.666666666666666</ele><time>2026-04-30T12:10:37.994Z</time></trkpt><trkpt lat="40.77644833969438" lon="9.656940409493794"><ele>10.5</ele><time>2026-04-30T12:10:39.994Z</time></trkpt><trkpt lat="40.77652787570529" lon="9.656954365114442"><ele>10.333333333333334</ele><time>2026-04-30T12:10:41.994Z</time></trkpt><trkpt lat="40.776604021683" lon="9.656965825140743"><ele>10.166666666666668</ele><time>2026-04-30T12:10:43.994Z</time></trkpt><trkpt lat="40.776679207397436" lon="9.65700752277352"><ele>10.0</ele><time>2026-04-30T12:10:46.994Z</time></trkpt><trkpt lat="40.77663909276562" lon="9.656938417068458"><ele>10.0</ele><time>2026-04-30T12:11:14.994Z</time></trkpt><trkpt lat="40.77656816329057" lon="9.656921656794891"><ele>10.0</ele><time>2026-04-30T12:11:16.994Z</time></trkpt><trkpt lat="40.7765037494404" lon="9.656920659220557"><ele>10.0</ele><time>2026-04-30T12:11:19.994Z</time></trkpt><trkpt lat="40.7764393054385" lon="9.656901261058326"><ele>10.0</ele><time>2026-04-30T12:11:24.994Z</time></trkpt><trkpt lat="40.77653573229421" lon="9.65678695690379"><ele>10.0</ele><time>2026-04-30T12:12:54.992Z</time></trkpt><trkpt lat="40.77659961875538" lon="9.656773003453914"><ele>10.0</ele><time>2026-04-30T12:13:06.992Z</time></trkpt><trkpt lat="40.7766645300239" lon="9.656752436935616"><ele>10.0</ele><time>2026-04-30T12:13:17.992Z</time></trkpt><trkpt lat="40.776611462758744" lon="9.656703543377928"><ele>10.0</ele><time>2026-04-30T12:41:51.999Z</time></trkpt><trkpt lat="40.77665232300941" lon="9.656608853387501"><ele>10.0</ele><time>2026-04-30T12:42:04Z</time></trkpt><trkpt lat="40.776617860485175" lon="9.656682665564563"><ele>10.0</ele><time>2026-04-30T12:42:28Z</time></trkpt><trkpt lat="40.77663343520765" lon="9.65676451455075"><ele>10.0</ele><time>2026-04-30T12:45:28.001Z</time></trkpt><trkpt lat="40.77656913903886" lon="9.656722874185466"><ele>10.0</ele><time>2026-04-30T12:46:53.002Z</time></trkpt><trkpt lat="40.77650051936409" lon="9.656707939896705"><ele>10.0</ele><time>2026-04-30T12:47:03.002Z</time></trkpt><trkpt lat="40.77643804759117" lon="9.656767121688128"><ele>10.0</ele><time>2026-04-30T12:49:36.004Z</time></trkpt><trkpt lat="40.776502386266664" lon="9.656760441653374"><ele>10.0</ele><time>2026-04-30T12:50:44.004Z</time></trkpt><trkpt lat="40.77656693301651" lon="9.656825676724841"><ele>10.0</ele><time>2026-04-30T12:50:51.004Z</time></trkpt><trkpt lat="40.776650412693826" lon="9.656870248496475"><ele>10.0</ele><time>2026-04-30T12:50:53.005Z</time></trkpt><trkpt lat="40.776709658010226" lon="9.656902888705336"><ele>10.0</ele><time>2026-04-30T12:50:54.005Z</time></trkpt><trkpt lat="40.77678791296706" lon="9.656931761523529"><ele>10.0</ele><time>2026-04-30T12:50:55.005Z</time></trkpt><trkpt lat="40.776868040023366" lon="9.657008144113973"><ele>9.4</ele><time>2026-04-30T12:50:56.005Z</time></trkpt><trkpt lat="40.77695762723056" lon="9.657027264187871"><ele>8.8</ele><time>2026-04-30T12:50:57.005Z</time></trkpt><trkpt lat="40.77705979336986" lon="9.65704735350802"><ele>8.2</ele><time>2026-04-30T12:50:58.005Z</time></trkpt><trkpt lat="40.77716451221853" lon="9.657026831059973"><ele>7.6</ele><time>2026-04-30T12:50:59.005Z</time></trkpt><trkpt lat="40.777272202827355" lon="9.657052717658694"><ele>7.0</ele><time>2026-04-30T12:51:00.005Z</time></trkpt><trkpt lat="40.77737096848858" lon="9.657082598878127"><ele>7.000000000000001</ele><time>2026-04-30T12:51:01.005Z</time></trkpt><trkpt lat="40.77746779918161" lon="9.657101519340904"><ele>7.0</ele><time>2026-04-30T12:51:02.005Z</time></trkpt><trkpt lat="40.77754536216163" lon="9.657114739038073"><ele>7.0</ele><time>2026-04-30T12:51:03.005Z</time></trkpt><trkpt lat="40.77763014129661" lon="9.657137593288986"><ele>7.0</ele><time>2026-04-30T12:51:04.005Z</time></trkpt><trkpt lat="40.77771072624629" lon="9.657157221711469"><ele>7.000000000000001</ele><time>2026-04-30T12:51:05.005Z</time></trkpt><trkpt lat="40.777784463349114" lon="9.657176150467125"><ele>7.0</ele><time>2026-04-30T12:51:06.005Z</time></trkpt><trkpt lat="40.77786357669566" lon="9.657197239004164"><ele>7.166666666666667</ele><time>2026-04-30T12:51:07.005Z</time></trkpt><trkpt lat="40.77793951292661" lon="9.657217528084244"><ele>7.333333333333334</ele><time>2026-04-30T12:51:08.005Z</time></trkpt><trkpt lat="40.778026194799466" lon="9.657233053488829"><ele>7.5</ele><time>2026-04-30T12:51:09.005Z</time></trkpt><trkpt lat="40.778101750716054" lon="9.657243705773562"><ele>7.666666666666666</ele><time>2026-04-30T12:51:10.005Z</time></trkpt><trkpt lat="40.77819107000873" lon="9.657261142954289"><ele>7.833333333333333</ele><time>2026-04-30T12:51:11.005Z</time></trkpt><trkpt lat="40.77828257426451" lon="9.657277752840118"><ele>8.0</ele><time>2026-04-30T12:51:12.005Z</time></trkpt><trkpt lat="40.77837509043433" lon="9.65729887724879"><ele>8.0</ele><time>2026-04-30T12:51:13.005Z</time></trkpt><trkpt lat="40.778468628421464" lon="9.65731905683038"><ele>8.0</ele><time>2026-04-30T12:51:14.005Z</time></trkpt><trkpt lat="40.77856157776684" lon="9.65733936647529"><ele>8.0</ele><time>2026-04-30T12:51:15.005Z</time></trkpt><trkpt lat="40.77865723286841" lon="9.657361717424637"><ele>8.0</ele><time>2026-04-30T12:51:16.005Z</time></trkpt><trkpt lat="40.778754311412484" lon="9.657377683948912"><ele>8.0</ele><time>2026-04-30T12:51:17.005Z</time></trkpt><trkpt lat="40.77885588507374" lon="9.657396937480245"><ele>7.800000000000001</ele><time>2026-04-30T12:51:18.005Z</time></trkpt><trkpt lat="40.778948438614584" lon="9.657418088293976"><ele>7.6000000000000005</ele><time>2026-04-30T12:51:19.005Z</time></trkpt><trkpt lat="40.779048290220416" lon="9.657438714599875"><ele>7.3999999999999995</ele><time>2026-04-30T12:51:20.005Z</time></trkpt><trkpt lat="40.7791512103464" lon="9.65745909227799"><ele>7.199999999999999</ele><time>2026-04-30T12:51:21.005Z</time></trkpt><trkpt lat="40.77923855741171" lon="9.65748071295094"><ele>7.0</ele><time>2026-04-30T12:51:22.005Z</time></trkpt><trkpt lat="40.77933049406794" lon="9.657495561467577"><ele>7.0</ele><time>2026-04-30T12:51:23.005Z</time></trkpt><trkpt lat="40.77942471093653" lon="9.657513615622674"><ele>6.999999999999999</ele><time>2026-04-30T12:51:24.005Z</time></trkpt><trkpt lat="40.779523070519616" lon="9.657531356341993"><ele>6.999999999999999</ele><time>2026-04-30T12:51:25.005Z</time></trkpt><trkpt lat="40.77962959542568" lon="9.657555099160884"><ele>7.0</ele><time>2026-04-30T12:51:26.005Z</time></trkpt><trkpt lat="40.77973886403332" lon="9.657580559442131"><ele>7.0</ele><time>2026-04-30T12:51:27.005Z</time></trkpt><trkpt lat="40.779848334328726" lon="9.6576004246103"><ele>7.0</ele><time>2026-04-30T12:51:28.005Z</time></trkpt><trkpt lat="40.77995800218041" lon="9.657621590543089"><ele>7.0</ele><time>2026-04-30T12:51:29.005Z</time></trkpt><trkpt lat="40.780072271460035" lon="9.657644418266692"><ele>7.0</ele><time>2026-04-30T12:51:30.005Z</time></trkpt><trkpt lat="40.78019342644418" lon="9.657670829709984"><ele>7.0</ele><time>2026-04-30T12:51:31.005Z</time></trkpt><trkpt lat="40.78031492605624" lon="9.657691253825577"><ele>6.75</ele><time>2026-04-30T12:51:32.005Z</time></trkpt><trkpt lat="40.78043464096303" lon="9.657712241411367"><ele>6.5</ele><time>2026-04-30T12:51:33.005Z</time></trkpt><trkpt lat="40.78056321554189" lon="9.657730025755617"><ele>6.25</ele><time>2026-04-30T12:51:34.005Z</time></trkpt><trkpt lat="40.780698490895126" lon="9.65775300564273"><ele>6.0</ele><time>2026-04-30T12:51:35.005Z</time></trkpt><trkpt lat="40.780834781542836" lon="9.657772919990816"><ele>6.0</ele><time>2026-04-30T12:51:36.005Z</time></trkpt><trkpt lat="40.780975713244544" lon="9.657784806802052"><ele>6.0</ele><time>2026-04-30T12:51:37.005Z</time></trkpt><trkpt lat="40.78111790073429" lon="9.657792139062588"><ele>6.0</ele><time>2026-04-30T12:51:38.005Z</time></trkpt><trkpt lat="40.781261449532344" lon="9.657791211096537"><ele>6.0</ele><time>2026-04-30T12:51:39.005Z</time></trkpt><trkpt lat="40.78140184234608" lon="9.657785940496849"><ele>5.75</ele><time>2026-04-30T12:51:40.005Z</time></trkpt><trkpt lat="40.78154650717709" lon="9.657781326151602"><ele>5.5</ele><time>2026-04-30T12:51:41.005Z</time></trkpt><trkpt lat="40.78169007969903" lon="9.6577718939164"><ele>5.25</ele><time>2026-04-30T12:51:42.005Z</time></trkpt><trkpt lat="40.781833806863396" lon="9.657762536642982"><ele>5.0</ele><time>2026-04-30T12:51:43.005Z</time></trkpt><trkpt lat="40.78198102796905" lon="9.657758484616128"><ele>4.666666666666667</ele><time>2026-04-30T12:51:44.005Z</time></trkpt><trkpt lat="40.782130068389975" lon="9.657754035787562"><ele>4.333333333333333</ele><time>2026-04-30T12:51:45.005Z</time></trkpt><trkpt lat="40.78228656160337" lon="9.65774578284858"><ele>4.0</ele><time>2026-04-30T12:51:46.005Z</time></trkpt><trkpt lat="40.78243708874654" lon="9.657738349165724"><ele>4.0</ele><time>2026-04-30T12:51:47.005Z</time></trkpt><trkpt lat="40.782585258456244" lon="9.65773145561238"><ele>4.0</ele><time>2026-04-30T12:51:48.005Z</time></trkpt><trkpt lat="40.78273679496555" lon="9.657720922597916"><ele>4.0</ele><time>2026-04-30T12:51:49.005Z</time></trkpt><trkpt lat="40.78288258078415" lon="9.657711653492264"><ele>4.0</ele><time>2026-04-30T12:51:50.005Z</time></trkpt><trkpt lat="40.783034917249076" lon="9.657702327638571"><ele>4.0</ele><time>2026-04-30T12:51:51.005Z</time></trkpt><trkpt lat="40.783187508022934" lon="9.657689901286474"><ele>4.0</ele><time>2026-04-30T12:51:52.005Z</time></trkpt><trkpt lat="40.783339930993186" lon="9.657676062791731"><ele>4.0</ele><time>2026-04-30T12:51:53.005Z</time></trkpt><trkpt lat="40.783488545288336" lon="9.657659383711072"><ele>3.5</ele><time>2026-04-30T12:51:54.005Z</time></trkpt><trkpt lat="40.783634300880614" lon="9.657649990899206"><ele>3.0</ele><time>2026-04-30T12:51:55.005Z</time></trkpt><trkpt lat="40.783771015268826" lon="9.657643981316452"><ele>2.5</ele><time>2026-04-30T12:51:56.005Z</time></trkpt><trkpt lat="40.783911157709575" lon="9.657639025180872"><ele>2.0</ele><time>2026-04-30T12:51:57.005Z</time></trkpt><trkpt lat="40.784036433010066" lon="9.657631811436644"><ele>2.0</ele><time>2026-04-30T12:51:58.005Z</time></trkpt><trkpt lat="40.78415238783522" lon="9.657632580939989"><ele>2.0</ele><time>2026-04-30T12:51:59.005Z</time></trkpt><trkpt lat="40.78427124730476" lon="9.657628019937736"><ele>2.0</ele><time>2026-04-30T12:52:00.005Z</time></trkpt><trkpt lat="40.78436940282087" lon="9.657639550041045"><ele>2.0</ele><time>2026-04-30T12:52:01.005Z</time></trkpt><trkpt lat="40.784456205860266" lon="9.657665241307345"><ele>2.0</ele><time>2026-04-30T12:52:02.005Z</time></trkpt><trkpt lat="40.78453649702223" lon="9.657705145433674"><ele>1.9999999999999998</ele><time>2026-04-30T12:52:03.005Z</time></trkpt><trkpt lat="40.784611858830225" lon="9.657740575284954"><ele>2.0</ele><time>2026-04-30T12:52:04.005Z</time></trkpt><trkpt lat="40.78467749551712" lon="9.657752130241889"><ele>2.0</ele><time>2026-04-30T12:52:05.005Z</time></trkpt><trkpt lat="40.784742791792894" lon="9.65773502389855"><ele>2.0</ele><time>2026-04-30T12:52:06.005Z</time></trkpt><trkpt lat="40.784807686828756" lon="9.657693036942016"><ele>1.9999999999999998</ele><time>2026-04-30T12:52:07.005Z</time></trkpt><trkpt lat="40.784879311433286" lon="9.657641524271288"><ele>2.0</ele><time>2026-04-30T12:52:08.005Z</time></trkpt><trkpt lat="40.78496932882177" lon="9.657598148177435"><ele>2.0</ele><time>2026-04-30T12:52:09.005Z</time></trkpt><trkpt lat="40.78507527621048" lon="9.657576181824215"><ele>2.0</ele><time>2026-04-30T12:52:10.005Z</time></trkpt><trkpt lat="40.7851954575622" lon="9.657562523235294"><ele>2.0</ele><time>2026-04-30T12:52:11.005Z</time></trkpt><trkpt lat="40.78532630142296" lon="9.657548126764194"><ele>2.0</ele><time>2026-04-30T12:52:12.005Z</time></trkpt><trkpt lat="40.78546483727982" lon="9.657538776673057"><ele>2.0</ele><time>2026-04-30T12:52:13.005Z</time></trkpt><trkpt lat="40.7856013961998" lon="9.657528466831259"><ele>2.0</ele><time>2026-04-30T12:52:14.005Z</time></trkpt><trkpt lat="40.78574331467101" lon="9.657512522845002"><ele>2.0</ele><time>2026-04-30T12:52:15.005Z</time></trkpt><trkpt lat="40.785883718880015" lon="9.657502702970918"><ele>2.0</ele><time>2026-04-30T12:52:16.005Z</time></trkpt><trkpt lat="40.78603017237875" lon="9.657488408128554"><ele>1.5</ele><time>2026-04-30T12:52:17.005Z</time></trkpt><trkpt lat="40.78617242563233" lon="9.657475396146474"><ele>1.0</ele><time>2026-04-30T12:52:18.005Z</time></trkpt><trkpt lat="40.78631892478737" lon="9.657459420429511"><ele>0.5</ele><time>2026-04-30T12:52:19.005Z</time></trkpt><trkpt lat="40.786477522662636" lon="9.65744326975696"><ele>0.0</ele><time>2026-04-30T12:52:20.005Z</time></trkpt><trkpt lat="40.78663842042588" lon="9.657423950360023"><ele>0.0</ele><time>2026-04-30T12:52:21.005Z</time></trkpt><trkpt lat="40.78679862819877" lon="9.657406090668141"><ele>0.0</ele><time>2026-04-30T12:52:22.005Z</time></trkpt><trkpt lat="40.7869839932732" lon="9.657382460193446"><ele>0.0</ele><time>2026-04-30T12:52:23.005Z</time></trkpt><trkpt lat="40.7871482362121" lon="9.657356588451398"><ele>0.0</ele><time>2026-04-30T12:52:24.005Z</time></trkpt><trkpt lat="40.787317045609484" lon="9.657339222106677"><ele>0.0</ele><time>2026-04-30T12:52:25.005Z</time></trkpt><trkpt lat="40.787479899969284" lon="9.65732196887346"><ele>0.0</ele><time>2026-04-30T12:52:26.005Z</time></trkpt><trkpt lat="40.78765015532846" lon="9.657287418127002"><ele>0.3333333333333333</ele><time>2026-04-30T12:52:27.005Z</time></trkpt><trkpt lat="40.78781092686352" lon="9.657239917140979"><ele>0.6666666666666666</ele><time>2026-04-30T12:52:28.005Z</time></trkpt><trkpt lat="40.78797888893756" lon="9.657189506716662"><ele>1.0</ele><time>2026-04-30T12:52:29.005Z</time></trkpt><trkpt lat="40.78814760967758" lon="9.657141691976513"><ele>1.0</ele><time>2026-04-30T12:52:30.005Z</time></trkpt><trkpt lat="40.788318927031256" lon="9.657088220592609"><ele>1.0</ele><time>2026-04-30T12:52:31.005Z</time></trkpt><trkpt lat="40.788489147204636" lon="9.657033283561944"><ele>1.0</ele><time>2026-04-30T12:52:32.005Z</time></trkpt><trkpt lat="40.7886650151451" lon="9.656977429554551"><ele>1.0</ele><time>2026-04-30T12:52:33.005Z</time></trkpt><trkpt lat="40.788832717971935" lon="9.65692444389025"><ele>1.0</ele><time>2026-04-30T12:52:34.005Z</time></trkpt><trkpt lat="40.788991188548614" lon="9.656876066847369"><ele>1.0</ele><time>2026-04-30T12:52:35.005Z</time></trkpt><trkpt lat="40.7891369108108" lon="9.656826736726465"><ele>1.0</ele><time>2026-04-30T12:52:36.005Z</time></trkpt><trkpt lat="40.78926606802749" lon="9.656774663432296"><ele>1.0</ele><time>2026-04-30T12:52:37.005Z</time></trkpt><trkpt lat="40.78940256177974" lon="9.656723242048397"><ele>1.0</ele><time>2026-04-30T12:52:38.005Z</time></trkpt><trkpt lat="40.78953270181282" lon="9.656680175525944"><ele>1.0</ele><time>2026-04-30T12:52:39.005Z</time></trkpt><trkpt lat="40.78964592989143" lon="9.656641917752227"><ele>1.6666666666666665</ele><time>2026-04-30T12:52:40.005Z</time></trkpt><trkpt lat="40.78974906677838" lon="9.656632950832682"><ele>2.3333333333333335</ele><time>2026-04-30T12:52:41.006Z</time></trkpt><trkpt lat="40.78983706643682" lon="9.656606242641073"><ele>3.0</ele><time>2026-04-30T12:52:42.006Z</time></trkpt><trkpt lat="40.78992564792804" lon="9.656578585391937"><ele>3.666666666666667</ele><time>2026-04-30T12:52:43.006Z</time></trkpt><trkpt lat="40.78999192110623" lon="9.656557456208862"><ele>4.333333333333334</ele><time>2026-04-30T12:52:44.006Z</time></trkpt><trkpt lat="40.790058723958566" lon="9.656536158199003"><ele>5.0</ele><time>2026-04-30T12:52:45.006Z</time></trkpt><trkpt lat="40.79013483472375" lon="9.656511893574768"><ele>5.0</ele><time>2026-04-30T12:52:47.006Z</time></trkpt><trkpt lat="40.79012646795384" lon="9.656318057510259"><ele>5.0</ele><time>2026-04-30T12:52:48.006Z</time></trkpt><trkpt lat="40.79011662181827" lon="9.656226436897867"><ele>5.0</ele><time>2026-04-30T12:52:49.006Z</time></trkpt><trkpt lat="40.79011331813969" lon="9.656124551525691"><ele>5.0</ele><time>2026-04-30T12:52:50.006Z</time></trkpt><trkpt lat="40.790091371683786" lon="9.65598546517653"><ele>5.0</ele><time>2026-04-30T12:52:51.006Z</time></trkpt><trkpt lat="40.790072135225934" lon="9.655847935639711"><ele>4.75</ele><time>2026-04-30T12:52:52.006Z</time></trkpt><trkpt lat="40.79005230215044" lon="9.655688338400209"><ele>4.5</ele><time>2026-04-30T12:52:53.006Z</time></trkpt><trkpt lat="40.790032445982504" lon="9.6555086130544"><ele>4.25</ele><time>2026-04-30T12:52:54.006Z</time></trkpt><trkpt lat="40.790008178071716" lon="9.655318225787996"><ele>4.0</ele><time>2026-04-30T12:52:55.006Z</time></trkpt><trkpt lat="40.78998789618009" lon="9.655127434030634"><ele>4.0</ele><time>2026-04-30T12:52:56.006Z</time></trkpt><trkpt lat="40.78996606108775" lon="9.654938959940004"><ele>4.0</ele><time>2026-04-30T12:52:57.006Z</time></trkpt><trkpt lat="40.789942582961366" lon="9.654734281399428"><ele>4.0</ele><time>2026-04-30T12:52:58.006Z</time></trkpt><trkpt lat="40.78991547888602" lon="9.654522582878545"><ele>4.0</ele><time>2026-04-30T12:52:59.006Z</time></trkpt><trkpt lat="40.78989039824494" lon="9.65431405614968"><ele>4.0</ele><time>2026-04-30T12:53:00.006Z</time></trkpt><trkpt lat="40.78986508939514" lon="9.654094997549322"><ele>4.0</ele><time>2026-04-30T12:53:01.006Z</time></trkpt><trkpt lat="40.78984310536369" lon="9.653869596645775"><ele>4.0</ele><time>2026-04-30T12:53:02.006Z</time></trkpt><trkpt lat="40.78981608318879" lon="9.653643299151348"><ele>4.0</ele><time>2026-04-30T12:53:03.006Z</time></trkpt><trkpt lat="40.78978836776819" lon="9.653412627767345"><ele>4.0</ele><time>2026-04-30T12:53:04.006Z</time></trkpt><trkpt lat="40.78976672233678" lon="9.65318535654378"><ele>4.0</ele><time>2026-04-30T12:53:05.006Z</time></trkpt><trkpt lat="40.7897288810442" lon="9.652948222416933"><ele>4.0</ele><time>2026-04-30T12:53:06.006Z</time></trkpt><trkpt lat="40.78970867660795" lon="9.65271092271808"><ele>4.0</ele><time>2026-04-30T12:53:07.006Z</time></trkpt><trkpt lat="40.78967860906166" lon="9.6524625711865"><ele>4.666666666666666</ele><time>2026-04-30T12:53:08.006Z</time></trkpt><trkpt lat="40.78964862371728" lon="9.652225869547568"><ele>5.333333333333333</ele><time>2026-04-30T12:53:09.006Z</time></trkpt><trkpt lat="40.78962323047065" lon="9.652014135160258"><ele>6.0</ele><time>2026-04-30T12:53:10.006Z</time></trkpt><trkpt lat="40.78959846249494" lon="9.6518054266686"><ele>6.25</ele><time>2026-04-30T12:53:11.006Z</time></trkpt><trkpt lat="40.78958001545944" lon="9.651620028526338"><ele>6.5</ele><time>2026-04-30T12:53:12.006Z</time></trkpt><trkpt lat="40.78956030755088" lon="9.651428387125435"><ele>6.75</ele><time>2026-04-30T12:53:13.006Z</time></trkpt><trkpt lat="40.78953290863431" lon="9.6512267844133"><ele>7.0</ele><time>2026-04-30T12:53:14.006Z</time></trkpt><trkpt lat="40.78950690293288" lon="9.651020075539137"><ele>7.333333333333334</ele><time>2026-04-30T12:53:15.006Z</time></trkpt><trkpt lat="40.78948113218059" lon="9.650805696251973"><ele>7.666666666666666</ele><time>2026-04-30T12:53:16.006Z</time></trkpt><trkpt lat="40.78944785254761" lon="9.650592315973496"><ele>8.0</ele><time>2026-04-30T12:53:17.006Z</time></trkpt><trkpt lat="40.789422599211576" lon="9.650369691528631"><ele>8.0</ele><time>2026-04-30T12:53:18.006Z</time></trkpt><trkpt lat="40.78939822084145" lon="9.650148544916389"><ele>8.0</ele><time>2026-04-30T12:53:19.006Z</time></trkpt><trkpt lat="40.78937524325093" lon="9.649927262800459"><ele>8.0</ele><time>2026-04-30T12:53:20.006Z</time></trkpt><trkpt lat="40.78934995622202" lon="9.649695336045285"><ele>9.333333333333332</ele><time>2026-04-30T12:53:21.006Z</time></trkpt><trkpt lat="40.78932959704218" lon="9.649455603168136"><ele>10.666666666666666</ele><time>2026-04-30T12:53:22.006Z</time></trkpt><trkpt lat="40.78931160855893" lon="9.649207434914215"><ele>12.0</ele><time>2026-04-30T12:53:23.006Z</time></trkpt><trkpt lat="40.7893019036381" lon="9.648953404573206"><ele>12.0</ele><time>2026-04-30T12:53:24.006Z</time></trkpt><trkpt lat="40.789291625984674" lon="9.648697227075045"><ele>12.0</ele><time>2026-04-30T12:53:25.006Z</time></trkpt><trkpt lat="40.789270089793554" lon="9.648442248159762"><ele>12.0</ele><time>2026-04-30T12:53:26.006Z</time></trkpt><trkpt lat="40.789253653190464" lon="9.648189356198106"><ele>12.333333333333332</ele><time>2026-04-30T12:53:27.006Z</time></trkpt><trkpt lat="40.78923764949391" lon="9.647934987714788"><ele>12.666666666666666</ele><time>2026-04-30T12:53:28.006Z</time></trkpt><trkpt lat="40.78922547676714" lon="9.647677445916072"><ele>13.0</ele><time>2026-04-30T12:53:29.006Z</time></trkpt><trkpt lat="40.78920899023988" lon="9.647422529392273"><ele>14.333333333333332</ele><time>2026-04-30T12:53:30.006Z</time></trkpt><trkpt lat="40.789192555643965" lon="9.6471680148755"><ele>15.666666666666668</ele><time>2026-04-30T12:53:31.006Z</time></trkpt><trkpt lat="40.78916618912307" lon="9.646914074429803"><ele>17.0</ele><time>2026-04-30T12:53:32.006Z</time></trkpt><trkpt lat="40.789149902198496" lon="9.646656926655924"><ele>17.0</ele><time>2026-04-30T12:53:33.006Z</time></trkpt><trkpt lat="40.78912448900674" lon="9.646396895019725"><ele>17.0</ele><time>2026-04-30T12:53:34.006Z</time></trkpt><trkpt lat="40.78908839474634" lon="9.646129510065531"><ele>17.0</ele><time>2026-04-30T12:53:35.006Z</time></trkpt><trkpt lat="40.78905405513814" lon="9.645856108616305"><ele>16.333333333333336</ele><time>2026-04-30T12:53:36.006Z</time></trkpt><trkpt lat="40.78901669015935" lon="9.645575385711867"><ele>15.666666666666668</ele><time>2026-04-30T12:53:37.006Z</time></trkpt><trkpt lat="40.78898598729418" lon="9.645292154949047"><ele>15.0</ele><time>2026-04-30T12:53:38.006Z</time></trkpt><trkpt lat="40.788951653296245" lon="9.645010480468978"><ele>15.0</ele><time>2026-04-30T12:53:39.006Z</time></trkpt><trkpt lat="40.788916419090945" lon="9.644730900591924"><ele>15.0</ele><time>2026-04-30T12:53:40.006Z</time></trkpt><trkpt lat="40.788886133048344" lon="9.644455236635801"><ele>15.0</ele><time>2026-04-30T12:53:41.006Z</time></trkpt><trkpt lat="40.7888537655299" lon="9.644176905730744"><ele>14.666666666666668</ele><time>2026-04-30T12:53:42.006Z</time></trkpt><trkpt lat="40.788816436806414" lon="9.64390000542676"><ele>14.333333333333334</ele><time>2026-04-30T12:53:43.006Z</time></trkpt><trkpt lat="40.78877787849736" lon="9.643620748143087"><ele>14.0</ele><time>2026-04-30T12:53:44.006Z</time></trkpt><trkpt lat="40.78873834526921" lon="9.643341023598953"><ele>14.666666666666668</ele><time>2026-04-30T12:53:45.006Z</time></trkpt><trkpt lat="40.78871237335264" lon="9.643061419396275"><ele>15.333333333333332</ele><time>2026-04-30T12:53:46.006Z</time></trkpt><trkpt lat="40.78867226988196" lon="9.642788307701482"><ele>16.0</ele><time>2026-04-30T12:53:47.006Z</time></trkpt><trkpt lat="40.78864621016691" lon="9.642516155320239"><ele>16.333333333333332</ele><time>2026-04-30T12:53:48.006Z</time></trkpt><trkpt lat="40.78860986323809" lon="9.642241433753929"><ele>16.666666666666668</ele><time>2026-04-30T12:53:49.006Z</time></trkpt><trkpt lat="40.78857565876034" lon="9.641966527192285"><ele>17.0</ele><time>2026-04-30T12:53:50.006Z</time></trkpt><trkpt lat="40.788544786826165" lon="9.641692018684529"><ele>17.333333333333336</ele><time>2026-04-30T12:53:51.006Z</time></trkpt><trkpt lat="40.78851131276377" lon="9.641421750009457"><ele>17.666666666666668</ele><time>2026-04-30T12:53:52.006Z</time></trkpt><trkpt lat="40.7884780432351" lon="9.641151003109522"><ele>18.0</ele><time>2026-04-30T12:53:53.006Z</time></trkpt><trkpt lat="40.788442886606575" lon="9.640879697873313"><ele>20.333333333333336</ele><time>2026-04-30T12:53:54.006Z</time></trkpt><trkpt lat="40.7884085759303" lon="9.640598885847757"><ele>22.666666666666668</ele><time>2026-04-30T12:53:55.006Z</time></trkpt><trkpt lat="40.78837184469982" lon="9.640321350554286"><ele>25.0</ele><time>2026-04-30T12:53:56.006Z</time></trkpt><trkpt lat="40.788339143618686" lon="9.64003807831521"><ele>25.0</ele><time>2026-04-30T12:53:57.006Z</time></trkpt><trkpt lat="40.78829800080517" lon="9.639749914828462"><ele>25.0</ele><time>2026-04-30T12:53:58.006Z</time></trkpt><trkpt lat="40.788259920593156" lon="9.639472392175199"><ele>25.0</ele><time>2026-04-30T12:53:59.006Z</time></trkpt><trkpt lat="40.78822692197123" lon="9.639200954221323"><ele>24.666666666666668</ele><time>2026-04-30T12:54:00.006Z</time></trkpt><trkpt lat="40.78819442766804" lon="9.638924146570728"><ele>24.333333333333336</ele><time>2026-04-30T12:54:01.006Z</time></trkpt><trkpt lat="40.788164815935566" lon="9.638651134025391"><ele>24.0</ele><time>2026-04-30T12:54:02.006Z</time></trkpt><trkpt lat="40.78813144287868" lon="9.638372358981453"><ele>24.666666666666664</ele><time>2026-04-30T12:54:03.006Z</time></trkpt><trkpt lat="40.788095773253815" lon="9.638096813421315"><ele>25.333333333333332</ele><time>2026-04-30T12:54:04.006Z</time></trkpt><trkpt lat="40.788062748248294" lon="9.637831180431109"><ele>26.0</ele><time>2026-04-30T12:54:05.006Z</time></trkpt><trkpt lat="40.78802528588952" lon="9.637573986156102"><ele>26.666666666666664</ele><time>2026-04-30T12:54:06.006Z</time></trkpt><trkpt lat="40.7879711964686" lon="9.63731777883714"><ele>27.333333333333336</ele><time>2026-04-30T12:54:07.006Z</time></trkpt><trkpt lat="40.7879028138292" lon="9.637064343507815"><ele>28.0</ele><time>2026-04-30T12:54:08.006Z</time></trkpt><trkpt lat="40.78782458344684" lon="9.636806732041961"><ele>28.333333333333336</ele><time>2026-04-30T12:54:09.006Z</time></trkpt><trkpt lat="40.787746944939876" lon="9.636541901034752"><ele>28.666666666666664</ele><time>2026-04-30T12:54:10.006Z</time></trkpt><trkpt lat="40.78767083646714" lon="9.636276792229909"><ele>29.0</ele><time>2026-04-30T12:54:11.006Z</time></trkpt><trkpt lat="40.78759331800602" lon="9.636009537689036"><ele>31.0</ele><time>2026-04-30T12:54:12.006Z</time></trkpt><trkpt lat="40.78751309662655" lon="9.635740544270199"><ele>33.0</ele><time>2026-04-30T12:54:13.006Z</time></trkpt><trkpt lat="40.787438174550644" lon="9.635476438505394"><ele>35.0</ele><time>2026-04-30T12:54:14.006Z</time></trkpt><trkpt lat="40.787359488033694" lon="9.635216639146453"><ele>36.0</ele><time>2026-04-30T12:54:15.006Z</time></trkpt><trkpt lat="40.78728518595837" lon="9.634961106884532"><ele>37.0</ele><time>2026-04-30T12:54:16.006Z</time></trkpt><trkpt lat="40.78720459440605" lon="9.634701914344326"><ele>38.0</ele><time>2026-04-30T12:54:17.006Z</time></trkpt><trkpt lat="40.78711488649966" lon="9.634447008066957"><ele>38.0</ele><time>2026-04-30T12:54:18.006Z</time></trkpt><trkpt lat="40.7870233257834" lon="9.634193253657472"><ele>38.0</ele><time>2026-04-30T12:54:19.006Z</time></trkpt><trkpt lat="40.78692839268551" lon="9.633935690735937"><ele>38.0</ele><time>2026-04-30T12:54:20.006Z</time></trkpt><trkpt lat="40.78683425505349" lon="9.633674306382593"><ele>39.666666666666664</ele><time>2026-04-30T12:54:21.006Z</time></trkpt><trkpt lat="40.786740236120195" lon="9.633413435556738"><ele>41.333333333333336</ele><time>2026-04-30T12:54:22.006Z</time></trkpt><trkpt lat="40.78664176848665" lon="9.633151821887335"><ele>43.0</ele><time>2026-04-30T12:54:23.006Z</time></trkpt><trkpt lat="40.786548322487846" lon="9.632893106488348"><ele>43.0</ele><time>2026-04-30T12:54:24.006Z</time></trkpt><trkpt lat="40.7864576587621" lon="9.63263461125784"><ele>43.0</ele><time>2026-04-30T12:54:25.006Z</time></trkpt><trkpt lat="40.78636431579715" lon="9.632377283945067"><ele>43.0</ele><time>2026-04-30T12:54:26.006Z</time></trkpt><trkpt lat="40.786269065993956" lon="9.632117952607915"><ele>42.66666666666667</ele><time>2026-04-30T12:54:27.006Z</time></trkpt><trkpt lat="40.78617887364797" lon="9.6318634588557"><ele>42.333333333333336</ele><time>2026-04-30T12:54:28.006Z</time></trkpt><trkpt lat="40.78609082946764" lon="9.631615156014314"><ele>42.0</ele><time>2026-04-30T12:54:29.007Z</time></trkpt><trkpt lat="40.78600872891434" lon="9.631389587698902"><ele>43.333333333333336</ele><time>2026-04-30T12:54:30.007Z</time></trkpt><trkpt lat="40.78593135257972" lon="9.631186822376469"><ele>44.66666666666667</ele><time>2026-04-30T12:54:31.007Z</time></trkpt><trkpt lat="40.785866447115" lon="9.630997481757838"><ele>46.0</ele><time>2026-04-30T12:54:32.007Z</time></trkpt><trkpt lat="40.78581233860265" lon="9.630836646398736"><ele>46.0</ele><time>2026-04-30T12:54:33.007Z</time></trkpt><trkpt lat="40.78578109899596" lon="9.630677595418538"><ele>46.0</ele><time>2026-04-30T12:54:34.007Z</time></trkpt><trkpt lat="40.785768465171486" lon="9.630523007547128"><ele>46.0</ele><time>2026-04-30T12:54:35.007Z</time></trkpt><trkpt lat="40.78577627037564" lon="9.630359685685164"><ele>46.0</ele><time>2026-04-30T12:54:36.007Z</time></trkpt><trkpt lat="40.78579771915888" lon="9.630180896613412"><ele>46.66666666666667</ele><time>2026-04-30T12:54:37.007Z</time></trkpt><trkpt lat="40.785828148007916" lon="9.629991016882043"><ele>47.333333333333336</ele><time>2026-04-30T12:54:38.007Z</time></trkpt><trkpt lat="40.78585219086702" lon="9.6297746381479"><ele>48.0</ele><time>2026-04-30T12:54:39.007Z</time></trkpt><trkpt lat="40.78588395940931" lon="9.629545196702749"><ele>48.66666666666667</ele><time>2026-04-30T12:54:40.007Z</time></trkpt><trkpt lat="40.78590724298719" lon="9.629306574368917"><ele>49.333333333333336</ele><time>2026-04-30T12:54:41.007Z</time></trkpt><trkpt lat="40.78593492686477" lon="9.629062137121592"><ele>50.0</ele><time>2026-04-30T12:54:42.007Z</time></trkpt><trkpt lat="40.7859652570732" lon="9.628813934126297"><ele>50.66666666666667</ele><time>2026-04-30T12:54:43.007Z</time></trkpt><trkpt lat="40.785991620054816" lon="9.628565183878743"><ele>51.33333333333333</ele><time>2026-04-30T12:54:44.007Z</time></trkpt><trkpt lat="40.78602378575115" lon="9.6283038225401"><ele>52.0</ele><time>2026-04-30T12:54:45.007Z</time></trkpt><trkpt lat="40.78606013975731" lon="9.62804292963047"><ele>50.33333333333333</ele><time>2026-04-30T12:54:46.007Z</time></trkpt><trkpt lat="40.78609065834083" lon="9.627770977158079"><ele>48.666666666666664</ele><time>2026-04-30T12:54:47.007Z</time></trkpt><trkpt lat="40.786116207311984" lon="9.627495676320754"><ele>47.0</ele><time>2026-04-30T12:54:48.007Z</time></trkpt><trkpt lat="40.78615652933878" lon="9.627227705744682"><ele>47.666666666666664</ele><time>2026-04-30T12:54:49.007Z</time></trkpt><trkpt lat="40.786192035538555" lon="9.62696103755652"><ele>48.33333333333333</ele><time>2026-04-30T12:54:50.007Z</time></trkpt><trkpt lat="40.786235593333444" lon="9.62671017413907"><ele>49.0</ele><time>2026-04-30T12:54:51.007Z</time></trkpt><trkpt lat="40.78629021930426" lon="9.626466443852514"><ele>49.0</ele><time>2026-04-30T12:54:52.007Z</time></trkpt><trkpt lat="40.7863643801602" lon="9.626226557946932"><ele>49.0</ele><time>2026-04-30T12:54:53.007Z</time></trkpt><trkpt lat="40.78644882374224" lon="9.625976401788881"><ele>49.0</ele><time>2026-04-30T12:54:54.007Z</time></trkpt><trkpt lat="40.7865430704058" lon="9.625718141389916"><ele>50.666666666666664</ele><time>2026-04-30T12:54:55.007Z</time></trkpt><trkpt lat="40.78663370398656" lon="9.625453983689344"><ele>52.33333333333333</ele><time>2026-04-30T12:54:56.007Z</time></trkpt><trkpt lat="40.786721582015446" lon="9.625190628244667"><ele>54.0</ele><time>2026-04-30T12:54:57.007Z</time></trkpt><trkpt lat="40.7868083779074" lon="9.624922853395065"><ele>54.66666666666667</ele><time>2026-04-30T12:54:58.007Z</time></trkpt><trkpt lat="40.78690315494489" lon="9.624658672624841"><ele>55.333333333333336</ele><time>2026-04-30T12:54:59.007Z</time></trkpt><trkpt lat="40.786997690354184" lon="9.624394873449946"><ele>56.0</ele><time>2026-04-30T12:55:00.007Z</time></trkpt><trkpt lat="40.78708672804505" lon="9.624124985310157"><ele>56.0</ele><time>2026-04-30T12:55:01.007Z</time></trkpt><trkpt lat="40.787174645421096" lon="9.62385786244302"><ele>56.0</ele><time>2026-04-30T12:55:02.007Z</time></trkpt><trkpt lat="40.78726130255834" lon="9.62359282027923"><ele>56.0</ele><time>2026-04-30T12:55:03.007Z</time></trkpt><trkpt lat="40.787348711786585" lon="9.623332955509323"><ele>58.333333333333336</ele><time>2026-04-30T12:55:04.007Z</time></trkpt><trkpt lat="40.78743979959356" lon="9.623072857375757"><ele>60.66666666666667</ele><time>2026-04-30T12:55:05.007Z</time></trkpt><trkpt lat="40.78752248417297" lon="9.622824463353753"><ele>63.0</ele><time>2026-04-30T12:55:06.007Z</time></trkpt><trkpt lat="40.787594744585185" lon="9.622595523272333"><ele>64.66666666666667</ele><time>2026-04-30T12:55:07.007Z</time></trkpt><trkpt lat="40.78766029963037" lon="9.622377504931054"><ele>66.33333333333334</ele><time>2026-04-30T12:55:08.007Z</time></trkpt><trkpt lat="40.78772470835438" lon="9.622178400111856"><ele>68.0</ele><time>2026-04-30T12:55:09.007Z</time></trkpt><trkpt lat="40.787773252133235" lon="9.62201360871887"><ele>66.0</ele><time>2026-04-30T12:55:10.007Z</time></trkpt><trkpt lat="40.78779968403123" lon="9.621866725054275"><ele>64.0</ele><time>2026-04-30T12:55:11.007Z</time></trkpt><trkpt lat="40.787802161177666" lon="9.62172241186115"><ele>62.0</ele><time>2026-04-30T12:55:12.007Z</time></trkpt><trkpt lat="40.78778535006214" lon="9.621574376111736"><ele>60.0</ele><time>2026-04-30T12:55:13.007Z</time></trkpt><trkpt lat="40.787765417025945" lon="9.621405915183574"><ele>60.0</ele><time>2026-04-30T12:55:14.007Z</time></trkpt><trkpt lat="40.78773933631889" lon="9.621230976492772"><ele>60.0</ele><time>2026-04-30T12:55:15.007Z</time></trkpt><trkpt lat="40.787727663808035" lon="9.62106573497036"><ele>60.0</ele><time>2026-04-30T12:55:16.007Z</time></trkpt><trkpt lat="40.78773360312726" lon="9.620907112345446"><ele>60.0</ele><time>2026-04-30T12:55:17.007Z</time></trkpt><trkpt lat="40.78775633704297" lon="9.620746302909861"><ele>61.5</ele><time>2026-04-30T12:55:18.007Z</time></trkpt><trkpt lat="40.78780361297619" lon="9.620584417624244"><ele>63.0</ele><time>2026-04-30T12:55:19.007Z</time></trkpt><trkpt lat="40.78785791602134" lon="9.620428199970373"><ele>64.5</ele><time>2026-04-30T12:55:20.007Z</time></trkpt><trkpt lat="40.78790944986196" lon="9.620271585718909"><ele>66.0</ele><time>2026-04-30T12:55:21.007Z</time></trkpt><trkpt lat="40.7879421621869" lon="9.6201147379009"><ele>66.25</ele><time>2026-04-30T12:55:22.007Z</time></trkpt><trkpt lat="40.78795625372203" lon="9.619944857800773"><ele>66.5</ele><time>2026-04-30T12:55:23.007Z</time></trkpt><trkpt lat="40.787953253692805" lon="9.619771734566273"><ele>66.75</ele><time>2026-04-30T12:55:24.007Z</time></trkpt><trkpt lat="40.78793852267353" lon="9.619596828664166"><ele>67.0</ele><time>2026-04-30T12:55:25.007Z</time></trkpt><trkpt lat="40.78793739072759" lon="9.619422433970716"><ele>67.5</ele><time>2026-04-30T12:55:26.007Z</time></trkpt><trkpt lat="40.78794781166927" lon="9.619248392598278"><ele>68.0</ele><time>2026-04-30T12:55:27.007Z</time></trkpt><trkpt lat="40.78798066932806" lon="9.619072180417486"><ele>68.5</ele><time>2026-04-30T12:55:28.007Z</time></trkpt><trkpt lat="40.78803206977123" lon="9.618901086712352"><ele>69.0</ele><time>2026-04-30T12:55:29.007Z</time></trkpt><trkpt lat="40.78809936280374" lon="9.618727464896667"><ele>71.25</ele><time>2026-04-30T12:55:30.007Z</time></trkpt><trkpt lat="40.78816183671718" lon="9.618547355247314"><ele>73.5</ele><time>2026-04-30T12:55:31.007Z</time></trkpt><trkpt lat="40.78822255117533" lon="9.618368262067877"><ele>75.75</ele><time>2026-04-30T12:55:32.007Z</time></trkpt><trkpt lat="40.78827270820423" lon="9.618182501604494"><ele>78.0</ele><time>2026-04-30T12:55:33.007Z</time></trkpt><trkpt lat="40.788310789984315" lon="9.617987672113939"><ele>80.25</ele><time>2026-04-30T12:55:34.007Z</time></trkpt><trkpt lat="40.788335134974304" lon="9.617790082952933"><ele>82.5</ele><time>2026-04-30T12:55:35.007Z</time></trkpt><trkpt lat="40.788342908187886" lon="9.617593355581626"><ele>84.75</ele><time>2026-04-30T12:55:36.007Z</time></trkpt><trkpt lat="40.788330264117825" lon="9.617412453554602"><ele>87.0</ele><time>2026-04-30T12:55:37.007Z</time></trkpt><trkpt lat="40.78829937867709" lon="9.617237529987712"><ele>87.0</ele><time>2026-04-30T12:55:38.007Z</time></trkpt><trkpt lat="40.78826167678266" lon="9.6170613326188"><ele>87.0</ele><time>2026-04-30T12:55:39.007Z</time></trkpt><trkpt lat="40.788224196783595" lon="9.616883373552243"><ele>87.0</ele><time>2026-04-30T12:55:40.007Z</time></trkpt><trkpt lat="40.788206221113214" lon="9.616694232041532"><ele>87.0</ele><time>2026-04-30T12:55:41.007Z</time></trkpt><trkpt lat="40.78819328729922" lon="9.616504568948647"><ele>86.5</ele><time>2026-04-30T12:55:42.007Z</time></trkpt><trkpt lat="40.788186995694176" lon="9.616313417258064"><ele>86.0</ele><time>2026-04-30T12:55:43.007Z</time></trkpt><trkpt lat="40.78818252652316" lon="9.616129331770972"><ele>85.5</ele><time>2026-04-30T12:55:44.007Z</time></trkpt><trkpt lat="40.78818923310504" lon="9.615961276070916"><ele>85.0</ele><time>2026-04-30T12:55:45.007Z</time></trkpt><trkpt lat="40.7882145328161" lon="9.615798479539706"><ele>85.0</ele><time>2026-04-30T12:55:46.007Z</time></trkpt><trkpt lat="40.78825258893019" lon="9.615633543844215"><ele>85.0</ele><time>2026-04-30T12:55:47.007Z</time></trkpt><trkpt lat="40.788314392923475" lon="9.615467578387165"><ele>85.0</ele><time>2026-04-30T12:55:48.007Z</time></trkpt><trkpt lat="40.788389794376876" lon="9.615297466427283"><ele>85.0</ele><time>2026-04-30T12:55:49.007Z</time></trkpt><trkpt lat="40.78847115219209" lon="9.615122760520125"><ele>81.0</ele><time>2026-04-30T12:55:50.007Z</time></trkpt><trkpt lat="40.788561966111125" lon="9.614940011814939"><ele>77.0</ele><time>2026-04-30T12:55:51.007Z</time></trkpt><trkpt lat="40.788666343673334" lon="9.614757809822606"><ele>73.0</ele><time>2026-04-30T12:55:52.007Z</time></trkpt><trkpt lat="40.788774282856934" lon="9.614582055643421"><ele>75.33333333333333</ele><time>2026-04-30T12:55:53.007Z</time></trkpt><trkpt lat="40.78887103301407" lon="9.614381809450741"><ele>77.66666666666667</ele><time>2026-04-30T12:55:54.007Z</time></trkpt><trkpt lat="40.78893807184113" lon="9.614171576481194"><ele>80.0</ele><time>2026-04-30T12:55:55.007Z</time></trkpt><trkpt lat="40.78897332866893" lon="9.61393318868503"><ele>80.0</ele><time>2026-04-30T12:55:56.007Z</time></trkpt><trkpt lat="40.788977149775675" lon="9.613708076474243"><ele>80.0</ele><time>2026-04-30T12:55:57.007Z</time></trkpt><trkpt lat="40.78897720278066" lon="9.613528423653444"><ele>80.0</ele><time>2026-04-30T12:55:58.007Z</time></trkpt><trkpt lat="40.78899136979978" lon="9.61341131256592"><ele>80.0</ele><time>2026-04-30T12:55:59.007Z</time></trkpt><trkpt lat="40.78897462557488" lon="9.61321479198261"><ele>84.0</ele><time>2026-04-30T12:56:00.007Z</time></trkpt><trkpt lat="40.78896755973215" lon="9.613004595336877"><ele>88.0</ele><time>2026-04-30T12:56:01.007Z</time></trkpt><trkpt lat="40.78896650860263" lon="9.612797444978659"><ele>92.0</ele><time>2026-04-30T12:56:02.007Z</time></trkpt><trkpt lat="40.78897622440047" lon="9.612609573315984"><ele>95.25</ele><time>2026-04-30T12:56:03.007Z</time></trkpt><trkpt lat="40.78899637785915" lon="9.612447696219606"><ele>98.5</ele><time>2026-04-30T12:56:04.007Z</time></trkpt><trkpt lat="40.789036603580215" lon="9.612297225026596"><ele>101.75</ele><time>2026-04-30T12:56:05.007Z</time></trkpt><trkpt lat="40.78910230111423" lon="9.612169861656705"><ele>105.0</ele><time>2026-04-30T12:56:06.007Z</time></trkpt><trkpt lat="40.78919841246318" lon="9.612073522157925"><ele>105.5</ele><time>2026-04-30T12:56:07.007Z</time></trkpt><trkpt lat="40.78929821771359" lon="9.611960531353006"><ele>106.0</ele><time>2026-04-30T12:56:08.007Z</time></trkpt><trkpt lat="40.789387833037814" lon="9.611841342707315"><ele>106.5</ele><time>2026-04-30T12:56:09.007Z</time></trkpt><trkpt lat="40.789482501322745" lon="9.611751286551906"><ele>107.0</ele><time>2026-04-30T12:56:10.007Z</time></trkpt><trkpt lat="40.789546370276284" lon="9.611628270264296"><ele>107.0</ele><time>2026-04-30T12:56:11.007Z</time></trkpt><trkpt lat="40.789589165129414" lon="9.61147729242365"><ele>107.0</ele><time>2026-04-30T12:56:12.007Z</time></trkpt><trkpt lat="40.78959132688373" lon="9.61131349722429"><ele>107.0</ele><time>2026-04-30T12:56:13.007Z</time></trkpt><trkpt lat="40.78961664127445" lon="9.611142333563125"><ele>107.0</ele><time>2026-04-30T12:56:14.007Z</time></trkpt><trkpt lat="40.78962796518789" lon="9.610954466786506"><ele>105.0</ele><time>2026-04-30T12:56:15.007Z</time></trkpt><trkpt lat="40.789640221823994" lon="9.610752055034336"><ele>103.0</ele><time>2026-04-30T12:56:16.008Z</time></trkpt><trkpt lat="40.78965440006708" lon="9.610541948000256"><ele>101.0</ele><time>2026-04-30T12:56:17.008Z</time></trkpt><trkpt lat="40.789670928125624" lon="9.610341885146033"><ele>102.75</ele><time>2026-04-30T12:56:18.008Z</time></trkpt><trkpt lat="40.78969514171945" lon="9.610155842689982"><ele>104.5</ele><time>2026-04-30T12:56:19.008Z</time></trkpt><trkpt lat="40.78974011437114" lon="9.609983366437147"><ele>106.25</ele><time>2026-04-30T12:56:20.008Z</time></trkpt><trkpt lat="40.78979771922109" lon="9.609823527757726"><ele>108.0</ele><time>2026-04-30T12:56:21.008Z</time></trkpt><trkpt lat="40.78987820770853" lon="9.609667643534758"><ele>108.0</ele><time>2026-04-30T12:56:22.008Z</time></trkpt><trkpt lat="40.78996797746896" lon="9.609507176784668"><ele>108.0</ele><time>2026-04-30T12:56:23.008Z</time></trkpt><trkpt lat="40.79005767197888" lon="9.609342514944961"><ele>108.0</ele><time>2026-04-30T12:56:24.008Z</time></trkpt><trkpt lat="40.79014375621129" lon="9.609175508933655"><ele>107.5</ele><time>2026-04-30T12:56:25.008Z</time></trkpt><trkpt lat="40.79022938236396" lon="9.60901964603844"><ele>107.0</ele><time>2026-04-30T12:56:26.008Z</time></trkpt><trkpt lat="40.79029840740431" lon="9.608877645945306"><ele>106.5</ele><time>2026-04-30T12:56:27.008Z</time></trkpt><trkpt lat="40.79035086278494" lon="9.608727333486886"><ele>106.0</ele><time>2026-04-30T12:56:28.008Z</time></trkpt><trkpt lat="40.7903904261147" lon="9.60856770652265"><ele>106.0</ele><time>2026-04-30T12:56:29.008Z</time></trkpt><trkpt lat="40.79041420691867" lon="9.608387740732276"><ele>106.0</ele><time>2026-04-30T12:56:30.008Z</time></trkpt><trkpt lat="40.79042916946748" lon="9.608183040867193"><ele>106.0</ele><time>2026-04-30T12:56:31.008Z</time></trkpt><trkpt lat="40.79043608433821" lon="9.607970207303085"><ele>105.0</ele><time>2026-04-30T12:56:32.008Z</time></trkpt><trkpt lat="40.79043831002175" lon="9.607750607432925"><ele>104.0</ele><time>2026-04-30T12:56:33.008Z</time></trkpt><trkpt lat="40.79043574183752" lon="9.607524186024316"><ele>103.0</ele><time>2026-04-30T12:56:34.008Z</time></trkpt><trkpt lat="40.7904275734693" lon="9.607308217964668"><ele>103.0</ele><time>2026-04-30T12:56:35.008Z</time></trkpt><trkpt lat="40.79041227268001" lon="9.607106050255211"><ele>103.0</ele><time>2026-04-30T12:56:36.008Z</time></trkpt><trkpt lat="40.79039279554244" lon="9.60691669003689"><ele>103.0</ele><time>2026-04-30T12:56:37.008Z</time></trkpt><trkpt lat="40.79037732972419" lon="9.606739437980197"><ele>103.0</ele><time>2026-04-30T12:56:38.008Z</time></trkpt><trkpt lat="40.79037398148897" lon="9.606573716808931"><ele>104.5</ele><time>2026-04-30T12:56:39.008Z</time></trkpt><trkpt lat="40.790396698942374" lon="9.606437406082389"><ele>106.0</ele><time>2026-04-30T12:56:40.008Z</time></trkpt><trkpt lat="40.790448663227906" lon="9.606314746232565"><ele>107.5</ele><time>2026-04-30T12:56:41.008Z</time></trkpt><trkpt lat="40.79051092340827" lon="9.606189497744184"><ele>109.0</ele><time>2026-04-30T12:56:42.008Z</time></trkpt><trkpt lat="40.79060268711629" lon="9.606067762519789"><ele>111.0</ele><time>2026-04-30T12:56:43.008Z</time></trkpt><trkpt lat="40.79068775916879" lon="9.605949087444289"><ele>113.0</ele><time>2026-04-30T12:56:44.008Z</time></trkpt><trkpt lat="40.790752636974574" lon="9.605824630918624"><ele>115.0</ele><time>2026-04-30T12:56:45.008Z</time></trkpt><trkpt lat="40.79080605599282" lon="9.605664863250722"><ele>117.0</ele><time>2026-04-30T12:56:46.008Z</time></trkpt><trkpt lat="40.79083497717916" lon="9.605480199531794"><ele>117.33333333333334</ele><time>2026-04-30T12:56:47.008Z</time></trkpt><trkpt lat="40.79084459571049" lon="9.605275710689993"><ele>117.66666666666667</ele><time>2026-04-30T12:56:48.008Z</time></trkpt><trkpt lat="40.79082526141598" lon="9.60505640965189"><ele>118.0</ele><time>2026-04-30T12:56:49.008Z</time></trkpt><trkpt lat="40.7908222734917" lon="9.604829114393562"><ele>118.0</ele><time>2026-04-30T12:56:50.008Z</time></trkpt><trkpt lat="40.79080958128915" lon="9.604596588903"><ele>118.0</ele><time>2026-04-30T12:56:51.008Z</time></trkpt><trkpt lat="40.79075567823479" lon="9.60438032084444"><ele>118.0</ele><time>2026-04-30T12:56:52.008Z</time></trkpt><trkpt lat="40.79066637411654" lon="9.604159474884208"><ele>116.33333333333334</ele><time>2026-04-30T12:56:53.008Z</time></trkpt><trkpt lat="40.790586050756175" lon="9.60392508311758"><ele>114.66666666666666</ele><time>2026-04-30T12:56:54.008Z</time></trkpt><trkpt lat="40.79051479350986" lon="9.603711660747189"><ele>113.0</ele><time>2026-04-30T12:56:55.008Z</time></trkpt><trkpt lat="40.790563692735155" lon="9.603839299347642"><ele>112.0</ele><time>2026-04-30T12:56:56.008Z</time></trkpt><trkpt lat="40.79048319868564" lon="9.603606071729502"><ele>111.0</ele><time>2026-04-30T12:56:57.008Z</time></trkpt><trkpt lat="40.790404525954926" lon="9.603362142662663"><ele>110.0</ele><time>2026-04-30T12:56:58.008Z</time></trkpt><trkpt lat="40.790325758946835" lon="9.603118767384395"><ele>110.0</ele><time>2026-04-30T12:56:59.008Z</time></trkpt><trkpt lat="40.790246931674524" lon="9.60287414067061"><ele>110.0</ele><time>2026-04-30T12:57:00.008Z</time></trkpt><trkpt lat="40.79017226031888" lon="9.602624550250173"><ele>110.0</ele><time>2026-04-30T12:57:01.008Z</time></trkpt><trkpt lat="40.79010367802759" lon="9.602369817360904"><ele>113.33333333333333</ele><time>2026-04-30T12:57:02.008Z</time></trkpt><trkpt lat="40.79004550654907" lon="9.602112529001493"><ele>116.66666666666666</ele><time>2026-04-30T12:57:03.008Z</time></trkpt><trkpt lat="40.789989139110425" lon="9.601853391292233"><ele>120.0</ele><time>2026-04-30T12:57:04.008Z</time></trkpt><trkpt lat="40.7899303011049" lon="9.601594666459443"><ele>120.0</ele><time>2026-04-30T12:57:05.008Z</time></trkpt><trkpt lat="40.789869572138386" lon="9.601339380629337"><ele>120.0</ele><time>2026-04-30T12:57:06.008Z</time></trkpt><trkpt lat="40.78980925114424" lon="9.601085920605165"><ele>120.0</ele><time>2026-04-30T12:57:07.008Z</time></trkpt><trkpt lat="40.789750117022194" lon="9.600845072031996"><ele>119.5</ele><time>2026-04-30T12:57:08.008Z</time></trkpt><trkpt lat="40.7896938239854" lon="9.600631065744318"><ele>119.0</ele><time>2026-04-30T12:57:09.008Z</time></trkpt><trkpt lat="40.78964770964925" lon="9.600449249322393"><ele>118.5</ele><time>2026-04-30T12:57:10.008Z</time></trkpt><trkpt lat="40.78960833999684" lon="9.600298937737463"><ele>118.0</ele><time>2026-04-30T12:57:11.008Z</time></trkpt><trkpt lat="40.78959934539275" lon="9.60016344726352"><ele>118.0</ele><time>2026-04-30T12:57:12.008Z</time></trkpt><trkpt lat="40.78963836508593" lon="9.600033626812744"><ele>118.0</ele><time>2026-04-30T12:57:13.008Z</time></trkpt><trkpt lat="40.78969402136125" lon="9.599896463956739"><ele>118.0</ele><time>2026-04-30T12:57:14.008Z</time></trkpt><trkpt lat="40.7897501169797" lon="9.59973425720267"><ele>118.0</ele><time>2026-04-30T12:57:15.008Z</time></trkpt><trkpt lat="40.78981223762972" lon="9.59955350545789"><ele>118.0</ele><time>2026-04-30T12:57:16.008Z</time></trkpt><trkpt lat="40.78987511533076" lon="9.599358073327029"><ele>118.0</ele><time>2026-04-30T12:57:17.008Z</time></trkpt><trkpt lat="40.78994371429388" lon="9.599156299076391"><ele>118.0</ele><time>2026-04-30T12:57:18.008Z</time></trkpt><trkpt lat="40.79001287973028" lon="9.598954368465298"><ele>118.0</ele><time>2026-04-30T12:57:19.008Z</time></trkpt><trkpt lat="40.790070566562726" lon="9.598763176020686"><ele>118.0</ele><time>2026-04-30T12:57:20.008Z</time></trkpt><trkpt lat="40.79014463779409" lon="9.598597646083238"><ele>118.0</ele><time>2026-04-30T12:57:21.008Z</time></trkpt><trkpt lat="40.79020254079491" lon="9.598424014698455"><ele>118.0</ele><time>2026-04-30T12:57:22.008Z</time></trkpt><trkpt lat="40.7902857132246" lon="9.598284523056492"><ele>119.5</ele><time>2026-04-30T12:57:23.008Z</time></trkpt><trkpt lat="40.79037569447615" lon="9.598161849345283"><ele>121.0</ele><time>2026-04-30T12:57:24.008Z</time></trkpt><trkpt lat="40.79049286417523" lon="9.59808579155191"><ele>122.5</ele><time>2026-04-30T12:57:25.008Z</time></trkpt><trkpt lat="40.790614559327565" lon="9.59802739179579"><ele>124.0</ele><time>2026-04-30T12:57:26.008Z</time></trkpt><trkpt lat="40.79074215156466" lon="9.597970184597752"><ele>124.0</ele><time>2026-04-30T12:57:27.008Z</time></trkpt><trkpt lat="40.7908838499267" lon="9.597900841130283"><ele>124.0</ele><time>2026-04-30T12:57:28.008Z</time></trkpt><trkpt lat="40.79104104023629" lon="9.597823916253677"><ele>124.0</ele><time>2026-04-30T12:57:29.008Z</time></trkpt><trkpt lat="40.7912045095631" lon="9.597743525061402"><ele>127.33333333333334</ele><time>2026-04-30T12:57:30.008Z</time></trkpt><trkpt lat="40.79136976949061" lon="9.597662293396297"><ele>130.66666666666666</ele><time>2026-04-30T12:57:31.008Z</time></trkpt><trkpt lat="40.79154088716212" lon="9.597576313659266"><ele>134.0</ele><time>2026-04-30T12:57:32.008Z</time></trkpt><trkpt lat="40.79170891048532" lon="9.597463772871997"><ele>134.0</ele><time>2026-04-30T12:57:33.008Z</time></trkpt><trkpt lat="40.79189127671702" lon="9.597370320135079"><ele>134.0</ele><time>2026-04-30T12:57:34.008Z</time></trkpt><trkpt lat="40.792070107880726" lon="9.59727754158409"><ele>134.0</ele><time>2026-04-30T12:57:35.008Z</time></trkpt><trkpt lat="40.792249648363764" lon="9.597181085340381"><ele>134.0</ele><time>2026-04-30T12:57:36.008Z</time></trkpt><trkpt lat="40.79242107812307" lon="9.597086601680909"><ele>134.0</ele><time>2026-04-30T12:57:37.008Z</time></trkpt><trkpt lat="40.79259959922395" lon="9.596990542750891"><ele>134.0</ele><time>2026-04-30T12:57:38.008Z</time></trkpt><trkpt lat="40.792803387628254" lon="9.59691668583359"><ele>137.0</ele><time>2026-04-30T12:57:39.008Z</time></trkpt><trkpt lat="40.79298151963946" lon="9.596834315742658"><ele>140.0</ele><time>2026-04-30T12:57:40.008Z</time></trkpt><trkpt lat="40.7931501765456" lon="9.596747477820916"><ele>143.0</ele><time>2026-04-30T12:57:41.008Z</time></trkpt><trkpt lat="40.79328678852688" lon="9.596665496431122"><ele>143.0</ele><time>2026-04-30T12:57:42.008Z</time></trkpt><trkpt lat="40.79341583785995" lon="9.5965917392908"><ele>143.0</ele><time>2026-04-30T12:57:43.008Z</time></trkpt><trkpt lat="40.79352185995217" lon="9.596525496525325"><ele>143.0</ele><time>2026-04-30T12:57:44.008Z</time></trkpt><trkpt lat="40.79360934108546" lon="9.596447322975648"><ele>143.0</ele><time>2026-04-30T12:57:45.008Z</time></trkpt><trkpt lat="40.79368699990139" lon="9.59634899596657"><ele>143.0</ele><time>2026-04-30T12:57:46.008Z</time></trkpt><trkpt lat="40.79375333215546" lon="9.596228440717026"><ele>143.0</ele><time>2026-04-30T12:57:47.008Z</time></trkpt><trkpt lat="40.7937883987192" lon="9.596090057436081"><ele>143.0</ele><time>2026-04-30T12:57:48.008Z</time></trkpt><trkpt lat="40.79380174329927" lon="9.595934833815495"><ele>143.0</ele><time>2026-04-30T12:57:49.008Z</time></trkpt><trkpt lat="40.79378876389532" lon="9.595763237320742"><ele>144.0</ele><time>2026-04-30T12:57:50.008Z</time></trkpt><trkpt lat="40.793769250182535" lon="9.595581284954758"><ele>145.0</ele><time>2026-04-30T12:57:51.008Z</time></trkpt><trkpt lat="40.793749080082186" lon="9.595395978016342"><ele>146.0</ele><time>2026-04-30T12:57:52.008Z</time></trkpt><trkpt lat="40.79371540963697" lon="9.595220008361778"><ele>147.0</ele><time>2026-04-30T12:57:53.008Z</time></trkpt><trkpt lat="40.7936738150285" lon="9.595053591452245"><ele>148.25</ele><time>2026-04-30T12:57:54.008Z</time></trkpt><trkpt lat="40.79360018861684" lon="9.594899174084025"><ele>149.5</ele><time>2026-04-30T12:57:55.008Z</time></trkpt><trkpt lat="40.79350631883009" lon="9.594745798749686"><ele>150.75</ele><time>2026-04-30T12:57:56.008Z</time></trkpt><trkpt lat="40.79340283376166" lon="9.594581718243694"><ele>152.0</ele><time>2026-04-30T12:57:57.008Z</time></trkpt><trkpt lat="40.793291550487126" lon="9.594416077770251"><ele>154.66666666666666</ele><time>2026-04-30T12:57:58.008Z</time></trkpt><trkpt lat="40.793177316854674" lon="9.594250915362148"><ele>157.33333333333334</ele><time>2026-04-30T12:57:59.008Z</time></trkpt><trkpt lat="40.79306654185767" lon="9.594082778072895"><ele>160.0</ele><time>2026-04-30T12:58:00.008Z</time></trkpt><trkpt lat="40.7929615775599" lon="9.593916955011155"><ele>160.0</ele><time>2026-04-30T12:58:01.008Z</time></trkpt><trkpt lat="40.792857699842884" lon="9.593756063550439"><ele>160.0</ele><time>2026-04-30T12:58:02.008Z</time></trkpt><trkpt lat="40.7927600018885" lon="9.59360526902572"><ele>160.0</ele><time>2026-04-30T12:58:03.008Z</time></trkpt><trkpt lat="40.79267171607527" lon="9.593467314158854"><ele>160.0</ele><time>2026-04-30T12:58:04.009Z</time></trkpt><trkpt lat="40.79259967126958" lon="9.593344438124381"><ele>161.2</ele><time>2026-04-30T12:58:05.009Z</time></trkpt><trkpt lat="40.7925429734884" lon="9.593226749435994"><ele>162.4</ele><time>2026-04-30T12:58:06.009Z</time></trkpt><trkpt lat="40.792512528622204" lon="9.593116726131315"><ele>163.60000000000002</ele><time>2026-04-30T12:58:07.009Z</time></trkpt><trkpt lat="40.79249876716863" lon="9.593005093593774"><ele>164.8</ele><time>2026-04-30T12:58:08.009Z</time></trkpt><trkpt lat="40.79250362988839" lon="9.592864921344463"><ele>166.0</ele><time>2026-04-30T12:58:09.009Z</time></trkpt><trkpt lat="40.79251253455997" lon="9.59270080023943"><ele>167.66666666666669</ele><time>2026-04-30T12:58:10.009Z</time></trkpt><trkpt lat="40.79251837250833" lon="9.592515402611964"><ele>169.33333333333334</ele><time>2026-04-30T12:58:11.009Z</time></trkpt><trkpt lat="40.79252226241942" lon="9.59230745520904"><ele>171.0</ele><time>2026-04-30T12:58:12.009Z</time></trkpt><trkpt lat="40.79251547109884" lon="9.5920981690508"><ele>173.0</ele><time>2026-04-30T12:58:13.009Z</time></trkpt><trkpt lat="40.792513055051664" lon="9.591888520544744"><ele>175.0</ele><time>2026-04-30T12:58:14.009Z</time></trkpt><trkpt lat="40.79250732878534" lon="9.59166341353043"><ele>177.0</ele><time>2026-04-30T12:58:15.009Z</time></trkpt><trkpt lat="40.7925063508604" lon="9.59143671920634"><ele>177.0</ele><time>2026-04-30T12:58:16.009Z</time></trkpt><trkpt lat="40.79251663689817" lon="9.591206291650948"><ele>177.0</ele><time>2026-04-30T12:58:17.009Z</time></trkpt><trkpt lat="40.79252703605713" lon="9.590968508553818"><ele>177.0</ele><time>2026-04-30T12:58:18.009Z</time></trkpt><trkpt lat="40.79253815443095" lon="9.590747728336137"><ele>178.2</ele><time>2026-04-30T12:58:19.009Z</time></trkpt><trkpt lat="40.79255943897156" lon="9.59057686801338"><ele>179.39999999999998</ele><time>2026-04-30T12:58:20.009Z</time></trkpt><trkpt lat="40.79257039043508" lon="9.590438717250551"><ele>180.60000000000002</ele><time>2026-04-30T12:58:21.009Z</time></trkpt><trkpt lat="40.79259258778723" lon="9.590343902176501"><ele>181.8</ele><time>2026-04-30T12:58:22.009Z</time></trkpt><trkpt lat="40.79268409548572" lon="9.590272989996718"><ele>183.0</ele><time>2026-04-30T12:58:24.009Z</time></trkpt><trkpt lat="40.79275046313257" lon="9.590268971924491"><ele>186.0</ele><time>2026-04-30T12:58:25.009Z</time></trkpt><trkpt lat="40.79283779003177" lon="9.590279852837238"><ele>189.0</ele><time>2026-04-30T12:58:27.009Z</time></trkpt><trkpt lat="40.79289230177543" lon="9.590438750809938"><ele>192.0</ele><time>2026-04-30T12:58:29.009Z</time></trkpt><trkpt lat="40.79294277597426" lon="9.59050698080411"><ele>195.0</ele><time>2026-04-30T12:58:30.009Z</time></trkpt><trkpt lat="40.792986936783436" lon="9.59061058062608"><ele>198.0</ele><time>2026-04-30T12:58:31.009Z</time></trkpt><trkpt lat="40.79304787224062" lon="9.590722276692313"><ele>198.0</ele><time>2026-04-30T12:58:32.009Z</time></trkpt><trkpt lat="40.79312404886861" lon="9.590836575651748"><ele>198.0</ele><time>2026-04-30T12:58:33.009Z</time></trkpt><trkpt lat="40.793181526101115" lon="9.59096693926427"><ele>198.0</ele><time>2026-04-30T12:58:34.009Z</time></trkpt><trkpt lat="40.79324242782533" lon="9.5911036721762"><ele>198.0</ele><time>2026-04-30T12:58:35.009Z</time></trkpt><trkpt lat="40.79330304993152" lon="9.591241971453703"><ele>198.75</ele><time>2026-04-30T12:58:36.009Z</time></trkpt><trkpt lat="40.79336658357066" lon="9.591381799067774"><ele>199.5</ele><time>2026-04-30T12:58:37.009Z</time></trkpt><trkpt lat="40.79343669281863" lon="9.59150843742553"><ele>200.25</ele><time>2026-04-30T12:58:38.009Z</time></trkpt><trkpt lat="40.793523016114925" lon="9.591612811205374"><ele>201.0</ele><time>2026-04-30T12:58:39.009Z</time></trkpt><trkpt lat="40.79362078742211" lon="9.591702224866282"><ele>201.0</ele><time>2026-04-30T12:58:40.009Z</time></trkpt><trkpt lat="40.793736334400414" lon="9.59177898660741"><ele>201.0</ele><time>2026-04-30T12:58:41.009Z</time></trkpt><trkpt lat="40.79385356928021" lon="9.591848963257371"><ele>201.0</ele><time>2026-04-30T12:58:42.009Z</time></trkpt><trkpt lat="40.79397053354083" lon="9.591916489969492"><ele>201.0</ele><time>2026-04-30T12:58:43.009Z</time></trkpt><trkpt lat="40.79409106228802" lon="9.591965926889145"><ele>202.0</ele><time>2026-04-30T12:58:44.009Z</time></trkpt><trkpt lat="40.79421015404939" lon="9.592007919335552"><ele>203.0</ele><time>2026-04-30T12:58:45.009Z</time></trkpt><trkpt lat="40.794333710266365" lon="9.592022634765673"><ele>204.0</ele><time>2026-04-30T12:58:46.009Z</time></trkpt><trkpt lat="40.79445733246478" lon="9.592015668223219"><ele>205.0</ele><time>2026-04-30T12:58:47.009Z</time></trkpt><trkpt lat="40.79458371789878" lon="9.591991390869143"><ele>205.0</ele><time>2026-04-30T12:58:48.009Z</time></trkpt><trkpt lat="40.794724681869795" lon="9.591954897850108"><ele>205.0</ele><time>2026-04-30T12:58:49.009Z</time></trkpt><trkpt lat="40.79485967894949" lon="9.591919705420358"><ele>205.0</ele><time>2026-04-30T12:58:50.009Z</time></trkpt><trkpt lat="40.79499528356962" lon="9.59187937204641"><ele>205.0</ele><time>2026-04-30T12:58:51.009Z</time></trkpt><trkpt lat="40.79513247800811" lon="9.59184001406313"><ele>204.0</ele><time>2026-04-30T12:58:52.009Z</time></trkpt><trkpt lat="40.795270806865226" lon="9.59180584126191"><ele>203.0</ele><time>2026-04-30T12:58:53.009Z</time></trkpt><trkpt lat="40.7954065670271" lon="9.591789923728149"><ele>202.0</ele><time>2026-04-30T12:58:54.009Z</time></trkpt><trkpt lat="40.79554407848032" lon="9.59179101238915"><ele>201.0</ele><time>2026-04-30T12:58:55.009Z</time></trkpt><trkpt lat="40.79568402984872" lon="9.591806015429725"><ele>201.0</ele><time>2026-04-30T12:58:56.009Z</time></trkpt><trkpt lat="40.7958176433022" lon="9.591841673112208"><ele>201.0</ele><time>2026-04-30T12:58:57.009Z</time></trkpt><trkpt lat="40.79596185766569" lon="9.591878888224375"><ele>201.0</ele><time>2026-04-30T12:58:58.009Z</time></trkpt><trkpt lat="40.79611438308291" lon="9.591906600670576"><ele>201.0</ele><time>2026-04-30T12:58:59.009Z</time></trkpt><trkpt lat="40.796260646458634" lon="9.591916645298769"><ele>200.75</ele><time>2026-04-30T12:59:00.009Z</time></trkpt><trkpt lat="40.79641188087561" lon="9.591912134374198"><ele>200.5</ele><time>2026-04-30T12:59:01.009Z</time></trkpt><trkpt lat="40.79655145775648" lon="9.59188971834922"><ele>200.25</ele><time>2026-04-30T12:59:02.009Z</time></trkpt><trkpt lat="40.79669218134285" lon="9.591852702090165"><ele>200.0</ele><time>2026-04-30T12:59:03.009Z</time></trkpt><trkpt lat="40.79683364045101" lon="9.591788101736224"><ele>199.0</ele><time>2026-04-30T12:59:04.009Z</time></trkpt><trkpt lat="40.79697309451104" lon="9.59171883210557"><ele>198.0</ele><time>2026-04-30T12:59:05.009Z</time></trkpt><trkpt lat="40.797112032091775" lon="9.591645625719952"><ele>197.0</ele><time>2026-04-30T12:59:06.009Z</time></trkpt><trkpt lat="40.797247634746746" lon="9.59157809570969"><ele>196.0</ele><time>2026-04-30T12:59:07.009Z</time></trkpt><trkpt lat="40.79738032669269" lon="9.59151947332801"><ele>196.0</ele><time>2026-04-30T12:59:08.009Z</time></trkpt><trkpt lat="40.797510201919664" lon="9.591475130124786"><ele>196.0</ele><time>2026-04-30T12:59:09.009Z</time></trkpt><trkpt lat="40.79765242407393" lon="9.591450481918248"><ele>196.0</ele><time>2026-04-30T12:59:10.009Z</time></trkpt><trkpt lat="40.79778428318656" lon="9.59144109110408"><ele>196.0</ele><time>2026-04-30T12:59:11.009Z</time></trkpt><trkpt lat="40.79792298144311" lon="9.591442474538658"><ele>192.5</ele><time>2026-04-30T12:59:12.009Z</time></trkpt><trkpt lat="40.79806773870568" lon="9.591488646932921"><ele>189.0</ele><time>2026-04-30T12:59:13.009Z</time></trkpt><trkpt lat="40.798201229920004" lon="9.591543669487773"><ele>185.5</ele><time>2026-04-30T12:59:14.009Z</time></trkpt><trkpt lat="40.79834573094911" lon="9.59161211541093"><ele>182.0</ele><time>2026-04-30T12:59:15.009Z</time></trkpt><trkpt lat="40.798493538721246" lon="9.591686309067132"><ele>180.0</ele><time>2026-04-30T12:59:16.009Z</time></trkpt><trkpt lat="40.79864528709034" lon="9.59177403806605"><ele>178.0</ele><time>2026-04-30T12:59:17.009Z</time></trkpt><trkpt lat="40.798798608162315" lon="9.591857655103802"><ele>176.0</ele><time>2026-04-30T12:59:18.009Z</time></trkpt><trkpt lat="40.79895382704117" lon="9.591945649583788"><ele>175.0</ele><time>2026-04-30T12:59:19.009Z</time></trkpt><trkpt lat="40.799113452260805" lon="9.592042870912437"><ele>174.0</ele><time>2026-04-30T12:59:20.009Z</time></trkpt><trkpt lat="40.79927015024147" lon="9.5921416997661"><ele>173.0</ele><time>2026-04-30T12:59:21.009Z</time></trkpt><trkpt lat="40.79942528132546" lon="9.592242849835916"><ele>172.66666666666666</ele><time>2026-04-30T12:59:22.009Z</time></trkpt><trkpt lat="40.79957928433609" lon="9.592340930419777"><ele>172.33333333333334</ele><time>2026-04-30T12:59:23.009Z</time></trkpt><trkpt lat="40.799730274699264" lon="9.592438280594553"><ele>172.0</ele><time>2026-04-30T12:59:24.009Z</time></trkpt><trkpt lat="40.79988626656867" lon="9.592544434530597"><ele>172.0</ele><time>2026-04-30T12:59:25.009Z</time></trkpt><trkpt lat="40.800039354308204" lon="9.592646682826212"><ele>172.0</ele><time>2026-04-30T12:59:26.009Z</time></trkpt><trkpt lat="40.80018489834323" lon="9.59275036307557"><ele>172.0</ele><time>2026-04-30T12:59:27.009Z</time></trkpt><trkpt lat="40.80031874199499" lon="9.59285112442603"><ele>173.0</ele><time>2026-04-30T12:59:28.009Z</time></trkpt><trkpt lat="40.800436982106916" lon="9.592970614232987"><ele>174.0</ele><time>2026-04-30T12:59:29.009Z</time></trkpt><trkpt lat="40.800573516227395" lon="9.59301385232236"><ele>175.0</ele><time>2026-04-30T12:59:30.009Z</time></trkpt><trkpt lat="40.80070702130692" lon="9.593059505523915"><ele>176.0</ele><time>2026-04-30T12:59:31.009Z</time></trkpt><trkpt lat="40.80083818660942" lon="9.593081496877469"><ele>176.0</ele><time>2026-04-30T12:59:32.009Z</time></trkpt><trkpt lat="40.8009727804911" lon="9.593083083743224"><ele>176.0</ele><time>2026-04-30T12:59:33.009Z</time></trkpt><trkpt lat="40.80111342858476" lon="9.593062478334337"><ele>176.0</ele><time>2026-04-30T12:59:34.009Z</time></trkpt><trkpt lat="40.8012517551203" lon="9.593015089980408"><ele>176.0</ele><time>2026-04-30T12:59:35.009Z</time></trkpt><trkpt lat="40.80138101746215" lon="9.592946213861918"><ele>174.25</ele><time>2026-04-30T12:59:36.009Z</time></trkpt><trkpt lat="40.80151314213681" lon="9.592857639890717"><ele>172.5</ele><time>2026-04-30T12:59:37.009Z</time></trkpt><trkpt lat="40.80163053449258" lon="9.59276383630062"><ele>170.75</ele><time>2026-04-30T12:59:38.009Z</time></trkpt><trkpt lat="40.80175711322432" lon="9.592687830171661"><ele>169.0</ele><time>2026-04-30T12:59:39.009Z</time></trkpt><trkpt lat="40.80189001220864" lon="9.592639215046253"><ele>167.0</ele><time>2026-04-30T12:59:40.009Z</time></trkpt><trkpt lat="40.802036939795" lon="9.592610392213615"><ele>165.0</ele><time>2026-04-30T12:59:41.009Z</time></trkpt><trkpt lat="40.80218987665552" lon="9.592602294274494"><ele>163.0</ele><time>2026-04-30T12:59:42.009Z</time></trkpt><trkpt lat="40.802347662032304" lon="9.59260236063486"><ele>163.0</ele><time>2026-04-30T12:59:43.009Z</time></trkpt><trkpt lat="40.80252315936937" lon="9.592588186678046"><ele>163.0</ele><time>2026-04-30T12:59:44.009Z</time></trkpt><trkpt lat="40.80268870835043" lon="9.592570802038344"><ele>163.0</ele><time>2026-04-30T12:59:45.009Z</time></trkpt><trkpt lat="40.802859026003205" lon="9.592559704808801"><ele>162.0</ele><time>2026-04-30T12:59:46.009Z</time></trkpt><trkpt lat="40.8030316409827" lon="9.592547325020867"><ele>161.0</ele><time>2026-04-30T12:59:47.009Z</time></trkpt><trkpt lat="40.803197261419584" lon="9.592541156568032"><ele>160.0</ele><time>2026-04-30T12:59:48.009Z</time></trkpt><trkpt lat="40.80336395410276" lon="9.592525724897977"><ele>159.0</ele><time>2026-04-30T12:59:49.009Z</time></trkpt><trkpt lat="40.8035235116064" lon="9.592507199804796"><ele>158.0</ele><time>2026-04-30T12:59:50.009Z</time></trkpt><trkpt lat="40.80367928403824" lon="9.592479669620941"><ele>157.0</ele><time>2026-04-30T12:59:51.009Z</time></trkpt><trkpt lat="40.803824776549845" lon="9.592426892036752"><ele>157.0</ele><time>2026-04-30T12:59:52.01Z</time></trkpt><trkpt lat="40.80396989237424" lon="9.592365878516272"><ele>157.0</ele><time>2026-04-30T12:59:53.01Z</time></trkpt><trkpt lat="40.80410967972258" lon="9.59228685186307"><ele>157.0</ele><time>2026-04-30T12:59:54.01Z</time></trkpt><trkpt lat="40.80426926001298" lon="9.592217840205528"><ele>155.0</ele><time>2026-04-30T12:59:55.01Z</time></trkpt><trkpt lat="40.8044287192818" lon="9.592165089328661"><ele>153.0</ele><time>2026-04-30T12:59:56.01Z</time></trkpt><trkpt lat="40.80459192149574" lon="9.592119353546392"><ele>151.0</ele><time>2026-04-30T12:59:57.01Z</time></trkpt><trkpt lat="40.804750282511485" lon="9.592084580232704"><ele>151.0</ele><time>2026-04-30T12:59:58.01Z</time></trkpt><trkpt lat="40.80490820269875" lon="9.592055664223821"><ele>151.0</ele><time>2026-04-30T12:59:59.01Z</time></trkpt><trkpt lat="40.805057989296586" lon="9.592020670018854"><ele>151.0</ele><time>2026-04-30T13:00:00.01Z</time></trkpt><trkpt lat="40.80518794912101" lon="9.591986303528717"><ele>151.0</ele><time>2026-04-30T13:00:01.01Z</time></trkpt><trkpt lat="40.80529672663565" lon="9.59194492408898"><ele>150.4</ele><time>2026-04-30T13:00:02.01Z</time></trkpt><trkpt lat="40.80538719050384" lon="9.591883625588418"><ele>149.8</ele><time>2026-04-30T13:00:03.01Z</time></trkpt><trkpt lat="40.80546280273438" lon="9.591802300042115"><ele>149.20000000000002</ele><time>2026-04-30T13:00:04.01Z</time></trkpt><trkpt lat="40.80552703862485" lon="9.591704567916077"><ele>148.6</ele><time>2026-04-30T13:00:05.01Z</time></trkpt><trkpt lat="40.805567373208376" lon="9.591596203531106"><ele>148.0</ele><time>2026-04-30T13:00:06.01Z</time></trkpt><trkpt lat="40.805586641220216" lon="9.59147866519667"><ele>148.0</ele><time>2026-04-30T13:00:07.01Z</time></trkpt><trkpt lat="40.805594912030195" lon="9.59135253926888"><ele>148.0</ele><time>2026-04-30T13:00:08.01Z</time></trkpt><trkpt lat="40.805594343954475" lon="9.591204510416842"><ele>148.0</ele><time>2026-04-30T13:00:09.01Z</time></trkpt><trkpt lat="40.805599114755715" lon="9.59105581759203"><ele>148.0</ele><time>2026-04-30T13:00:10.01Z</time></trkpt><trkpt lat="40.80560373095584" lon="9.59091612225381"><ele>148.0</ele><time>2026-04-30T13:00:11.01Z</time></trkpt><trkpt lat="40.805621562031284" lon="9.590814463738203"><ele>148.0</ele><time>2026-04-30T13:00:12.01Z</time></trkpt><trkpt lat="40.80565463010063" lon="9.590714427901279"><ele>148.0</ele><time>2026-04-30T13:00:13.01Z</time></trkpt><trkpt lat="40.80574173461726" lon="9.590662764097013"><ele>148.0</ele><time>2026-04-30T13:00:14.01Z</time></trkpt><trkpt lat="40.80583321936017" lon="9.590623394115008"><ele>148.0</ele><time>2026-04-30T13:00:15.01Z</time></trkpt><trkpt lat="40.80594175445297" lon="9.590611642073185"><ele>148.0</ele><time>2026-04-30T13:00:16.01Z</time></trkpt><trkpt lat="40.80605601367417" lon="9.59061528704659"><ele>147.25</ele><time>2026-04-30T13:00:17.01Z</time></trkpt><trkpt lat="40.80619200833936" lon="9.590622593624627"><ele>146.5</ele><time>2026-04-30T13:00:18.01Z</time></trkpt><trkpt lat="40.806332158609756" lon="9.590626318937769"><ele>145.75</ele><time>2026-04-30T13:00:19.01Z</time></trkpt><trkpt lat="40.8064648519856" lon="9.5906220696327"><ele>145.0</ele><time>2026-04-30T13:00:20.01Z</time></trkpt><trkpt lat="40.80658130564359" lon="9.59060892568781"><ele>145.0</ele><time>2026-04-30T13:00:21.01Z</time></trkpt><trkpt lat="40.806664073304376" lon="9.59057600417847"><ele>145.0</ele><time>2026-04-30T13:00:22.01Z</time></trkpt><trkpt lat="40.80672781695328" lon="9.590562943658306"><ele>145.0</ele><time>2026-04-30T13:00:23.01Z</time></trkpt><trkpt lat="40.80682440178106" lon="9.590526987315327"><ele>145.0</ele><time>2026-04-30T13:00:24.01Z</time></trkpt><trkpt lat="40.80688707209327" lon="9.590485589593541"><ele>145.0</ele><time>2026-04-30T13:00:26.01Z</time></trkpt><trkpt lat="40.80694284224507" lon="9.590399495546167"><ele>145.0</ele><time>2026-04-30T13:00:30.01Z</time></trkpt><trkpt lat="40.80699794785415" lon="9.590251853020662"><ele>145.6</ele><time>2026-04-30T13:00:32.01Z</time></trkpt><trkpt lat="40.80704965511042" lon="9.59015696124751"><ele>146.2</ele><time>2026-04-30T13:00:33.01Z</time></trkpt><trkpt lat="40.807110121085856" lon="9.590048827351628"><ele>146.8</ele><time>2026-04-30T13:00:34.01Z</time></trkpt><trkpt lat="40.80718011364723" lon="9.589925619646566"><ele>147.4</ele><time>2026-04-30T13:00:35.01Z</time></trkpt><trkpt lat="40.8072546854499" lon="9.589797462982908"><ele>148.0</ele><time>2026-04-30T13:00:36.01Z</time></trkpt><trkpt lat="40.80732518415371" lon="9.589675866592744"><ele>148.0</ele><time>2026-04-30T13:00:37.01Z</time></trkpt><trkpt lat="40.807384256600436" lon="9.58957519027969"><ele>148.0</ele><time>2026-04-30T13:00:38.01Z</time></trkpt><trkpt lat="40.807435851413274" lon="9.589490880181852"><ele>148.0</ele><time>2026-04-30T13:00:39.01Z</time></trkpt><trkpt lat="40.807488181330385" lon="9.589410594229118"><ele>148.0</ele><time>2026-04-30T13:00:40.01Z</time></trkpt><trkpt lat="40.80753679477725" lon="9.58933208354735"><ele>148.0</ele><time>2026-04-30T13:00:41.01Z</time></trkpt><trkpt lat="40.807590459784805" lon="9.58926923464635"><ele>148.0</ele><time>2026-04-30T13:00:42.01Z</time></trkpt><trkpt lat="40.80768237602736" lon="9.58918770137363"><ele>148.0</ele><time>2026-04-30T13:00:44.01Z</time></trkpt><trkpt lat="40.80779150747055" lon="9.589257990146951"><ele>148.0</ele><time>2026-04-30T13:00:45.01Z</time></trkpt><trkpt lat="40.80787639093647" lon="9.589246480051859"><ele>148.0</ele><time>2026-04-30T13:00:46.01Z</time></trkpt><trkpt lat="40.80800282810132" lon="9.589202709619544"><ele>148.0</ele><time>2026-04-30T13:00:47.01Z</time></trkpt><trkpt lat="40.808134878407614" lon="9.58916791473203"><ele>148.0</ele><time>2026-04-30T13:00:48.01Z</time></trkpt><trkpt lat="40.80824960563542" lon="9.589110442371673"><ele>148.0</ele><time>2026-04-30T13:00:49.01Z</time></trkpt><trkpt lat="40.808353991546696" lon="9.589063023504304"><ele>148.0</ele><time>2026-04-30T13:00:50.01Z</time></trkpt><trkpt lat="40.80845841139545" lon="9.589027208171764"><ele>148.0</ele><time>2026-04-30T13:00:51.01Z</time></trkpt><trkpt lat="40.80857138421633" lon="9.589005347389913"><ele>145.5</ele><time>2026-04-30T13:00:52.01Z</time></trkpt><trkpt lat="40.808697172029355" lon="9.588990822325679"><ele>143.0</ele><time>2026-04-30T13:00:53.01Z</time></trkpt><trkpt lat="40.808814786893045" lon="9.589003909326697"><ele>140.5</ele><time>2026-04-30T13:00:54.01Z</time></trkpt><trkpt lat="40.80892806875186" lon="9.589008541317202"><ele>138.0</ele><time>2026-04-30T13:00:55.01Z</time></trkpt><trkpt lat="40.809049765600584" lon="9.589006080482333"><ele>138.0</ele><time>2026-04-30T13:00:56.01Z</time></trkpt><trkpt lat="40.80916317656839" lon="9.589007248430358"><ele>138.0</ele><time>2026-04-30T13:00:57.01Z</time></trkpt><trkpt lat="40.809278962940866" lon="9.588992284094699"><ele>138.0</ele><time>2026-04-30T13:00:58.01Z</time></trkpt><trkpt lat="40.8094076677773" lon="9.588953143063055"><ele>138.0</ele><time>2026-04-30T13:00:59.01Z</time></trkpt><trkpt lat="40.80953150450879" lon="9.58889409068982"><ele>136.5</ele><time>2026-04-30T13:01:00.01Z</time></trkpt><trkpt lat="40.8096490749281" lon="9.58881682144269"><ele>135.0</ele><time>2026-04-30T13:01:01.01Z</time></trkpt><trkpt lat="40.809755567669065" lon="9.588728452480401"><ele>133.5</ele><time>2026-04-30T13:01:02.01Z</time></trkpt><trkpt lat="40.80986038356195" lon="9.58863217525387"><ele>132.0</ele><time>2026-04-30T13:01:03.01Z</time></trkpt><trkpt lat="40.80995905367775" lon="9.588531126516347"><ele>131.4</ele><time>2026-04-30T13:01:04.01Z</time></trkpt><trkpt lat="40.81002323444096" lon="9.588431791923522"><ele>130.79999999999998</ele><time>2026-04-30T13:01:05.01Z</time></trkpt><trkpt lat="40.81006266875583" lon="9.588335151101504"><ele>130.2</ele><time>2026-04-30T13:01:06.01Z</time></trkpt><trkpt lat="40.81008345649003" lon="9.588213738233195"><ele>129.6</ele><time>2026-04-30T13:01:07.01Z</time></trkpt><trkpt lat="40.81009237240189" lon="9.588092165404209"><ele>129.0</ele><time>2026-04-30T13:01:08.01Z</time></trkpt><trkpt lat="40.81009482770074" lon="9.587928508273984"><ele>129.5</ele><time>2026-04-30T13:01:09.01Z</time></trkpt><trkpt lat="40.81010404303394" lon="9.587751771249966"><ele>130.0</ele><time>2026-04-30T13:01:10.01Z</time></trkpt><trkpt lat="40.81012378726783" lon="9.587581985564192"><ele>130.5</ele><time>2026-04-30T13:01:11.01Z</time></trkpt><trkpt lat="40.81015727956062" lon="9.587396241011682"><ele>131.0</ele><time>2026-04-30T13:01:12.01Z</time></trkpt><trkpt lat="40.810203637513176" lon="9.587225936918875"><ele>129.5</ele><time>2026-04-30T13:01:13.01Z</time></trkpt><trkpt lat="40.81023892198977" lon="9.58706680045846"><ele>128.0</ele><time>2026-04-30T13:01:14.01Z</time></trkpt><trkpt lat="40.8102953042527" lon="9.586922680300441"><ele>126.5</ele><time>2026-04-30T13:01:15.01Z</time></trkpt><trkpt lat="40.8103555521294" lon="9.586796668689649"><ele>125.0</ele><time>2026-04-30T13:01:16.01Z</time></trkpt><trkpt lat="40.810420756996656" lon="9.58668260710834"><ele>124.8</ele><time>2026-04-30T13:01:17.01Z</time></trkpt><trkpt lat="40.81050231234868" lon="9.586588805429065"><ele>124.6</ele><time>2026-04-30T13:01:18.01Z</time></trkpt><trkpt lat="40.8106016270873" lon="9.586522561989984"><ele>124.4</ele><time>2026-04-30T13:01:19.01Z</time></trkpt><trkpt lat="40.810700614930106" lon="9.58647174269909"><ele>124.2</ele><time>2026-04-30T13:01:20.01Z</time></trkpt><trkpt lat="40.81081762841262" lon="9.586421137784678"><ele>124.0</ele><time>2026-04-30T13:01:21.01Z</time></trkpt><trkpt lat="40.810946153628706" lon="9.586380036089047"><ele>122.25</ele><time>2026-04-30T13:01:22.01Z</time></trkpt><trkpt lat="40.81107910131219" lon="9.58632404593004"><ele>120.5</ele><time>2026-04-30T13:01:23.01Z</time></trkpt><trkpt lat="40.81118722428326" lon="9.586256462928791"><ele>118.75</ele><time>2026-04-30T13:01:24.01Z</time></trkpt><trkpt lat="40.81125679073619" lon="9.586140774414599"><ele>117.0</ele><time>2026-04-30T13:01:25.01Z</time></trkpt><trkpt lat="40.81132397933906" lon="9.586027418543614"><ele>116.33333333333333</ele><time>2026-04-30T13:01:26.01Z</time></trkpt><trkpt lat="40.81136633129459" lon="9.585903457613831"><ele>115.66666666666666</ele><time>2026-04-30T13:01:27.01Z</time></trkpt><trkpt lat="40.81140962711637" lon="9.585793535404948"><ele>115.0</ele><time>2026-04-30T13:01:28.01Z</time></trkpt><trkpt lat="40.81143233752599" lon="9.585674866669027"><ele>114.33333333333333</ele><time>2026-04-30T13:01:29.01Z</time></trkpt><trkpt lat="40.8114749247363" lon="9.585593981862274"><ele>113.66666666666666</ele><time>2026-04-30T13:01:30.01Z</time></trkpt><trkpt lat="40.81154163724123" lon="9.585571293196674"><ele>113.0</ele><time>2026-04-30T13:01:30.995Z</time></trkpt><trkpt lat="40.811606308724485" lon="9.58556323691607"><ele>113.0</ele><time>2026-04-30T13:01:31.995Z</time></trkpt><trkpt lat="40.811707250898536" lon="9.585593683914569"><ele>113.0</ele><time>2026-04-30T13:01:32.995Z</time></trkpt><trkpt lat="40.811796302095146" lon="9.585721172949626"><ele>113.0</ele><time>2026-04-30T13:01:33.995Z</time></trkpt><trkpt lat="40.81190091082888" lon="9.585818891291378"><ele>113.0</ele><time>2026-04-30T13:01:34.995Z</time></trkpt><trkpt lat="40.81201490383814" lon="9.585928645434725"><ele>110.75</ele><time>2026-04-30T13:01:35.995Z</time></trkpt><trkpt lat="40.81211981593954" lon="9.586033441727938"><ele>108.5</ele><time>2026-04-30T13:01:36.995Z</time></trkpt><trkpt lat="40.81223896086728" lon="9.586108204169143"><ele>106.25</ele><time>2026-04-30T13:01:37.995Z</time></trkpt><trkpt lat="40.81234322708286" lon="9.586186490235606"><ele>104.0</ele><time>2026-04-30T13:01:38.995Z</time></trkpt><trkpt lat="40.81244729000259" lon="9.58623586843178"><ele>104.0</ele><time>2026-04-30T13:01:39.995Z</time></trkpt><trkpt lat="40.81255332282626" lon="9.586275602788369"><ele>104.0</ele><time>2026-04-30T13:01:40.995Z</time></trkpt><trkpt lat="40.812665132012086" lon="9.586299759630705"><ele>104.0</ele><time>2026-04-30T13:01:41.995Z</time></trkpt><trkpt lat="40.81279192387499" lon="9.586314430054674"><ele>104.0</ele><time>2026-04-30T13:01:42.995Z</time></trkpt><trkpt lat="40.81293940055753" lon="9.586318405033644"><ele>102.0</ele><time>2026-04-30T13:01:43.995Z</time></trkpt><trkpt lat="40.8130895621628" lon="9.58631773928672"><ele>100.0</ele><time>2026-04-30T13:01:44.995Z</time></trkpt><trkpt lat="40.81322997577215" lon="9.586303546037186"><ele>98.0</ele><time>2026-04-30T13:01:45.995Z</time></trkpt><trkpt lat="40.81335560921015" lon="9.586304373364426"><ele>96.0</ele><time>2026-04-30T13:01:46.995Z</time></trkpt><trkpt lat="40.81347439875864" lon="9.586300524729507"><ele>94.6</ele><time>2026-04-30T13:01:47.995Z</time></trkpt><trkpt lat="40.8135895718447" lon="9.586290820429602"><ele>93.19999999999999</ele><time>2026-04-30T13:01:48.995Z</time></trkpt><trkpt lat="40.813686139778575" lon="9.586276616660358"><ele>91.80000000000001</ele><time>2026-04-30T13:01:49.995Z</time></trkpt><trkpt lat="40.813778760000666" lon="9.586263970638884"><ele>90.4</ele><time>2026-04-30T13:01:50.995Z</time></trkpt><trkpt lat="40.813871557608884" lon="9.586250074902061"><ele>89.0</ele><time>2026-04-30T13:01:51.995Z</time></trkpt><trkpt lat="40.81396059408148" lon="9.586233083576095"><ele>89.0</ele><time>2026-04-30T13:01:52.995Z</time></trkpt><trkpt lat="40.81406775760352" lon="9.586214695828975"><ele>89.0</ele><time>2026-04-30T13:01:53.995Z</time></trkpt><trkpt lat="40.81419032798103" lon="9.58621058902116"><ele>89.0</ele><time>2026-04-30T13:01:54.995Z</time></trkpt><trkpt lat="40.81429823779628" lon="9.586191118306974"><ele>89.0</ele><time>2026-04-30T13:01:55.995Z</time></trkpt><trkpt lat="40.81443441366437" lon="9.586142449893565"><ele>87.75</ele><time>2026-04-30T13:01:56.995Z</time></trkpt><trkpt lat="40.81457233511659" lon="9.586085025745067"><ele>86.5</ele><time>2026-04-30T13:01:57.995Z</time></trkpt><trkpt lat="40.81470835525761" lon="9.586015209352771"><ele>85.25</ele><time>2026-04-30T13:01:58.995Z</time></trkpt><trkpt lat="40.81485057486845" lon="9.585945163867919"><ele>84.0</ele><time>2026-04-30T13:01:59.995Z</time></trkpt><trkpt lat="40.81497033279253" lon="9.58587995062559"><ele>84.0</ele><time>2026-04-30T13:02:00.995Z</time></trkpt><trkpt lat="40.81509538648519" lon="9.585825853105025"><ele>84.0</ele><time>2026-04-30T13:02:01.995Z</time></trkpt><trkpt lat="40.81520839425487" lon="9.585758956183513"><ele>84.0</ele><time>2026-04-30T13:02:02.995Z</time></trkpt><trkpt lat="40.81531991401187" lon="9.585688368378639"><ele>84.0</ele><time>2026-04-30T13:02:03.995Z</time></trkpt><trkpt lat="40.81544258047941" lon="9.585624466660233"><ele>83.75</ele><time>2026-04-30T13:02:04.995Z</time></trkpt><trkpt lat="40.8155618531982" lon="9.58554999502985"><ele>83.5</ele><time>2026-04-30T13:02:05.995Z</time></trkpt><trkpt lat="40.815683920535875" lon="9.585477101055448"><ele>83.25</ele><time>2026-04-30T13:02:06.995Z</time></trkpt><trkpt lat="40.81581540084999" lon="9.585407464310304"><ele>83.0</ele><time>2026-04-30T13:02:07.995Z</time></trkpt><trkpt lat="40.815961513559536" lon="9.58536117814878"><ele>83.25</ele><time>2026-04-30T13:02:08.995Z</time></trkpt><trkpt lat="40.81610911430667" lon="9.58531821329323"><ele>83.5</ele><time>2026-04-30T13:02:09.995Z</time></trkpt><trkpt lat="40.81624407583884" lon="9.585281597297"><ele>83.75</ele><time>2026-04-30T13:02:10.995Z</time></trkpt><trkpt lat="40.816345938832114" lon="9.585293680161143"><ele>84.0</ele><time>2026-04-30T13:02:11.995Z</time></trkpt><trkpt lat="40.816420976123865" lon="9.585288595565588"><ele>84.0</ele><time>2026-04-30T13:02:12.995Z</time></trkpt><trkpt lat="40.81643345880665" lon="9.585126469512106"><ele>84.0</ele><time>2026-04-30T13:02:15.995Z</time></trkpt><trkpt lat="40.816401207205885" lon="9.585043132792435"><ele>84.0</ele><time>2026-04-30T13:02:16.995Z</time></trkpt><trkpt lat="40.81634285483191" lon="9.584936911156746"><ele>84.0</ele><time>2026-04-30T13:02:17.993Z</time></trkpt><trkpt lat="40.81629457293684" lon="9.584785284179016"><ele>84.0</ele><time>2026-04-30T13:02:18.994Z</time></trkpt><trkpt lat="40.81624870662551" lon="9.584629163297071"><ele>82.75</ele><time>2026-04-30T13:02:19.994Z</time></trkpt><trkpt lat="40.8162444198743" lon="9.58446605499741"><ele>81.5</ele><time>2026-04-30T13:02:20.994Z</time></trkpt><trkpt lat="40.816227280011226" lon="9.58431260032854"><ele>80.25</ele><time>2026-04-30T13:02:21.993Z</time></trkpt><trkpt lat="40.81619717790341" lon="9.584176425710252"><ele>79.0</ele><time>2026-04-30T13:02:22.993Z</time></trkpt><trkpt lat="40.81613836342382" lon="9.584051525642902"><ele>79.0</ele><time>2026-04-30T13:02:23.994Z</time></trkpt><trkpt lat="40.816099581195196" lon="9.583939656740469"><ele>79.0</ele><time>2026-04-30T13:02:24.994Z</time></trkpt><trkpt lat="40.816024579630046" lon="9.583829998807396"><ele>79.0</ele><time>2026-04-30T13:02:25.994Z</time></trkpt><trkpt lat="40.81595918786149" lon="9.583718437365105"><ele>79.0</ele><time>2026-04-30T13:02:26.994Z</time></trkpt><trkpt lat="40.815885782715206" lon="9.58359890142262"><ele>79.0</ele><time>2026-04-30T13:02:27.993Z</time></trkpt><trkpt lat="40.815796239274285" lon="9.583474851081604"><ele>80.0</ele><time>2026-04-30T13:02:28.993Z</time></trkpt><trkpt lat="40.81566620293721" lon="9.583363768695838"><ele>81.0</ele><time>2026-04-30T13:02:29.993Z</time></trkpt><trkpt lat="40.81556087533888" lon="9.583254520858247"><ele>82.0</ele><time>2026-04-30T13:02:30.993Z</time></trkpt><trkpt lat="40.81545940252602" lon="9.583144058396552"><ele>83.0</ele><time>2026-04-30T13:02:31.993Z</time></trkpt><trkpt lat="40.81535769978628" lon="9.583030959324883"><ele>83.0</ele><time>2026-04-30T13:02:32.993Z</time></trkpt><trkpt lat="40.81525112668835" lon="9.582919783930667"><ele>83.0</ele><time>2026-04-30T13:02:33.993Z</time></trkpt><trkpt lat="40.815135723724005" lon="9.582794631663791"><ele>83.0</ele><time>2026-04-30T13:02:34.993Z</time></trkpt><trkpt lat="40.815021971422475" lon="9.58265954579538"><ele>83.0</ele><time>2026-04-30T13:02:35.993Z</time></trkpt><trkpt lat="40.81491076934087" lon="9.58253117495324"><ele>84.0</ele><time>2026-04-30T13:02:36.993Z</time></trkpt><trkpt lat="40.81480509336161" lon="9.582416822793242"><ele>85.0</ele><time>2026-04-30T13:02:37.993Z</time></trkpt><trkpt lat="40.8147073459012" lon="9.582312196848532"><ele>86.0</ele><time>2026-04-30T13:02:38.993Z</time></trkpt><trkpt lat="40.81462604931715" lon="9.58221602603941"><ele>87.0</ele><time>2026-04-30T13:02:39.993Z</time></trkpt><trkpt lat="40.81454809632709" lon="9.582126259150034"><ele>87.0</ele><time>2026-04-30T13:02:40.993Z</time></trkpt><trkpt lat="40.814474796406536" lon="9.582033060539487"><ele>87.0</ele><time>2026-04-30T13:02:41.993Z</time></trkpt><trkpt lat="40.81440574600223" lon="9.581952891570705"><ele>87.0</ele><time>2026-04-30T13:02:42.993Z</time></trkpt><trkpt lat="40.814346996486016" lon="9.581875572403803"><ele>87.0</ele><time>2026-04-30T13:02:43.993Z</time></trkpt><trkpt lat="40.81429806501953" lon="9.581808252381443"><ele>87.0</ele><time>2026-04-30T13:02:44.993Z</time></trkpt><trkpt lat="40.814257297619285" lon="9.581724045882224"><ele>87.0</ele><time>2026-04-30T13:02:46.993Z</time></trkpt><trkpt lat="40.814301007769636" lon="9.581585836844562"><ele>87.19999999999999</ele><time>2026-04-30T13:02:48.993Z</time></trkpt><trkpt lat="40.81433519312118" lon="9.58151275708993"><ele>87.4</ele><time>2026-04-30T13:02:49.993Z</time></trkpt><trkpt lat="40.814365285761255" lon="9.581419838905143"><ele>87.6</ele><time>2026-04-30T13:02:50.993Z</time></trkpt><trkpt lat="40.81439913276954" lon="9.581307025288199"><ele>87.80000000000001</ele><time>2026-04-30T13:02:51.993Z</time></trkpt><trkpt lat="40.81443644133176" lon="9.581162403848005"><ele>88.0</ele><time>2026-04-30T13:02:52.993Z</time></trkpt><trkpt lat="40.81447810323312" lon="9.581015971057706"><ele>89.0</ele><time>2026-04-30T13:02:53.993Z</time></trkpt><trkpt lat="40.814521934965164" lon="9.58085105150666"><ele>90.0</ele><time>2026-04-30T13:02:54.994Z</time></trkpt><trkpt lat="40.81456729606831" lon="9.580698337560245"><ele>91.0</ele><time>2026-04-30T13:02:55.994Z</time></trkpt><trkpt lat="40.81460699814118" lon="9.580538035053259"><ele>92.0</ele><time>2026-04-30T13:02:56.994Z</time></trkpt><trkpt lat="40.81464843352162" lon="9.580383450350956"><ele>93.75</ele><time>2026-04-30T13:02:57.994Z</time></trkpt><trkpt lat="40.814690918149886" lon="9.5802359995204"><ele>95.5</ele><time>2026-04-30T13:02:58.994Z</time></trkpt><trkpt lat="40.81473626272717" lon="9.580074883095685"><ele>97.25</ele><time>2026-04-30T13:02:59.994Z</time></trkpt><trkpt lat="40.81478339208238" lon="9.579921722147143"><ele>99.0</ele><time>2026-04-30T13:03:00.994Z</time></trkpt><trkpt lat="40.814835809412045" lon="9.579779463612196"><ele>99.0</ele><time>2026-04-30T13:03:01.994Z</time></trkpt><trkpt lat="40.81488880596927" lon="9.579640973312971"><ele>99.0</ele><time>2026-04-30T13:03:02.994Z</time></trkpt><trkpt lat="40.814935771988665" lon="9.579519880803032"><ele>99.0</ele><time>2026-04-30T13:03:03.994Z</time></trkpt><trkpt lat="40.81497261058586" lon="9.579390613874299"><ele>99.0</ele><time>2026-04-30T13:03:04.994Z</time></trkpt><trkpt lat="40.815004052865596" lon="9.579284333194463"><ele>99.0</ele><time>2026-04-30T13:03:05.994Z</time></trkpt><trkpt lat="40.815026079915086" lon="9.579158862364542"><ele>100.4</ele><time>2026-04-30T13:03:06.994Z</time></trkpt><trkpt lat="40.815044151358364" lon="9.579023507711982"><ele>101.80000000000001</ele><time>2026-04-30T13:03:07.994Z</time></trkpt><trkpt lat="40.81505937811422" lon="9.578893372609198"><ele>103.19999999999999</ele><time>2026-04-30T13:03:08.994Z</time></trkpt><trkpt lat="40.81506497042535" lon="9.578780595464002"><ele>104.6</ele><time>2026-04-30T13:03:09.994Z</time></trkpt><trkpt lat="40.81506751418981" lon="9.578671335187922"><ele>106.0</ele><time>2026-04-30T13:03:10.994Z</time></trkpt><trkpt lat="40.8150601401769" lon="9.578556551482393"><ele>106.6</ele><time>2026-04-30T13:03:11.994Z</time></trkpt><trkpt lat="40.81506756717513" lon="9.578444608152312"><ele>107.19999999999999</ele><time>2026-04-30T13:03:12.994Z</time></trkpt><trkpt lat="40.815094141490064" lon="9.578313654402193"><ele>107.80000000000001</ele><time>2026-04-30T13:03:13.994Z</time></trkpt><trkpt lat="40.815129331305116" lon="9.578188232051723"><ele>108.4</ele><time>2026-04-30T13:03:14.994Z</time></trkpt><trkpt lat="40.81516963258611" lon="9.578060246730457"><ele>109.0</ele><time>2026-04-30T13:03:15.994Z</time></trkpt><trkpt lat="40.81521312035015" lon="9.577938027366972"><ele>108.83333333333334</ele><time>2026-04-30T13:03:16.994Z</time></trkpt><trkpt lat="40.815246539418254" lon="9.577828611754025"><ele>108.66666666666667</ele><time>2026-04-30T13:03:17.994Z</time></trkpt><trkpt lat="40.81525499217271" lon="9.577721418902826"><ele>108.5</ele><time>2026-04-30T13:03:18.994Z</time></trkpt><trkpt lat="40.815254571373146" lon="9.577606462729916"><ele>108.33333333333334</ele><time>2026-04-30T13:03:19.994Z</time></trkpt><trkpt lat="40.815229836707594" lon="9.5774912878579"><ele>108.16666666666667</ele><time>2026-04-30T13:03:20.994Z</time></trkpt><trkpt lat="40.81519695605076" lon="9.577372868691759"><ele>108.0</ele><time>2026-04-30T13:03:21.994Z</time></trkpt><trkpt lat="40.81515297888621" lon="9.577233977259365"><ele>108.0</ele><time>2026-04-30T13:03:22.994Z</time></trkpt><trkpt lat="40.815109827176435" lon="9.577088097490671"><ele>108.0</ele><time>2026-04-30T13:03:23.994Z</time></trkpt><trkpt lat="40.8150671958677" lon="9.576934631349578"><ele>108.0</ele><time>2026-04-30T13:03:24.994Z</time></trkpt><trkpt lat="40.815024167359375" lon="9.576771240764092"><ele>108.0</ele><time>2026-04-30T13:03:25.994Z</time></trkpt><trkpt lat="40.8149883608633" lon="9.57660768128049"><ele>109.75</ele><time>2026-04-30T13:03:26.994Z</time></trkpt><trkpt lat="40.814961011531246" lon="9.576437824481424"><ele>111.5</ele><time>2026-04-30T13:03:27.994Z</time></trkpt><trkpt lat="40.8149330391047" lon="9.576259126355017"><ele>113.25</ele><time>2026-04-30T13:03:28.994Z</time></trkpt><trkpt lat="40.81490568702" lon="9.576081810720554"><ele>115.0</ele><time>2026-04-30T13:03:29.994Z</time></trkpt><trkpt lat="40.81487199227994" lon="9.57591405749306"><ele>116.5</ele><time>2026-04-30T13:03:30.994Z</time></trkpt><trkpt lat="40.81483067222917" lon="9.575754648600977"><ele>118.0</ele><time>2026-04-30T13:03:31.994Z</time></trkpt><trkpt lat="40.81478972381655" lon="9.575614500732472"><ele>119.5</ele><time>2026-04-30T13:03:32.994Z</time></trkpt><trkpt lat="40.814746666609246" lon="9.575466331977205"><ele>121.0</ele><time>2026-04-30T13:03:33.994Z</time></trkpt><trkpt lat="40.81470666435622" lon="9.57531600877294"><ele>122.5</ele><time>2026-04-30T13:03:34.994Z</time></trkpt><trkpt lat="40.8146455602917" lon="9.5751588445296"><ele>124.0</ele><time>2026-04-30T13:03:35.994Z</time></trkpt><trkpt lat="40.81455579585271" lon="9.575027541627462"><ele>125.5</ele><time>2026-04-30T13:03:36.994Z</time></trkpt><trkpt lat="40.814474581795665" lon="9.574892434479505"><ele>127.0</ele><time>2026-04-30T13:03:37.994Z</time></trkpt><trkpt lat="40.81440911474723" lon="9.574786018597974"><ele>127.0</ele><time>2026-04-30T13:03:38.994Z</time></trkpt><trkpt lat="40.81434294487523" lon="9.574677816298996"><ele>127.0</ele><time>2026-04-30T13:03:39.994Z</time></trkpt><trkpt lat="40.814268835240114" lon="9.57454914111854"><ele>127.0</ele><time>2026-04-30T13:03:40.994Z</time></trkpt><trkpt lat="40.81419863890672" lon="9.574418696216838"><ele>127.0</ele><time>2026-04-30T13:03:41.994Z</time></trkpt><trkpt lat="40.8141285438345" lon="9.574287720173679"><ele>126.8</ele><time>2026-04-30T13:03:42.994Z</time></trkpt><trkpt lat="40.814063471368556" lon="9.574163081733708"><ele>126.6</ele><time>2026-04-30T13:03:43.994Z</time></trkpt><trkpt lat="40.81400409502349" lon="9.574035846769032"><ele>126.39999999999999</ele><time>2026-04-30T13:03:44.994Z</time></trkpt><trkpt lat="40.81394624452266" lon="9.573904954582968"><ele>126.19999999999999</ele><time>2026-04-30T13:03:45.994Z</time></trkpt><trkpt lat="40.8139049441289" lon="9.573799024717163"><ele>126.0</ele><time>2026-04-30T13:03:46.994Z</time></trkpt><trkpt lat="40.81386516484903" lon="9.5737233949374"><ele>129.75</ele><time>2026-04-30T13:03:47.994Z</time></trkpt><trkpt lat="40.813791302963864" lon="9.57363447584173"><ele>133.5</ele><time>2026-04-30T13:03:49.994Z</time></trkpt><trkpt lat="40.81369536833319" lon="9.573481614111252"><ele>137.25</ele><time>2026-04-30T13:03:51.994Z</time></trkpt><trkpt lat="40.81368164209597" lon="9.573362185878196"><ele>141.0</ele><time>2026-04-30T13:03:52.994Z</time></trkpt><trkpt lat="40.81367606784888" lon="9.573197381423263"><ele>141.0</ele><time>2026-04-30T13:03:53.994Z</time></trkpt><trkpt lat="40.81367291065549" lon="9.573029369960405"><ele>141.0</ele><time>2026-04-30T13:03:54.994Z</time></trkpt><trkpt lat="40.81366165616351" lon="9.572891772184763"><ele>141.0</ele><time>2026-04-30T13:03:55.994Z</time></trkpt><trkpt lat="40.81364446958268" lon="9.5727346742773"><ele>141.0</ele><time>2026-04-30T13:03:56.994Z</time></trkpt><trkpt lat="40.813686893817625" lon="9.572592721833669"><ele>142.6</ele><time>2026-04-30T13:03:57.994Z</time></trkpt><trkpt lat="40.81371285968611" lon="9.572498091807478"><ele>144.2</ele><time>2026-04-30T13:03:58.994Z</time></trkpt><trkpt lat="40.81371982590934" lon="9.572379405494207"><ele>145.8</ele><time>2026-04-30T13:04:00.994Z</time></trkpt><trkpt lat="40.81364841941656" lon="9.572347190863967"><ele>147.4</ele><time>2026-04-30T13:04:02.994Z</time></trkpt><trkpt lat="40.81353380071933" lon="9.572342030368246"><ele>149.0</ele><time>2026-04-30T13:04:04.994Z</time></trkpt><trkpt lat="40.81347054039125" lon="9.57219396048414"><ele>147.66666666666666</ele><time>2026-04-30T13:04:06.994Z</time></trkpt><trkpt lat="40.813484336806646" lon="9.572092255785575"><ele>146.33333333333331</ele><time>2026-04-30T13:04:07.994Z</time></trkpt><trkpt lat="40.81347311823538" lon="9.57198383680951"><ele>145.0</ele><time>2026-04-30T13:04:08.994Z</time></trkpt><trkpt lat="40.813458149320006" lon="9.571879660914128"><ele>143.66666666666666</ele><time>2026-04-30T13:04:09.994Z</time></trkpt><trkpt lat="40.81343047079994" lon="9.571757895399836"><ele>142.33333333333334</ele><time>2026-04-30T13:04:10.994Z</time></trkpt><trkpt lat="40.81339492705006" lon="9.571627370370912"><ele>141.0</ele><time>2026-04-30T13:04:11.994Z</time></trkpt><trkpt lat="40.813362117096695" lon="9.57148963341878"><ele>141.0</ele><time>2026-04-30T13:04:12.994Z</time></trkpt><trkpt lat="40.81332234650396" lon="9.571351339903154"><ele>141.0</ele><time>2026-04-30T13:04:13.994Z</time></trkpt><trkpt lat="40.81328498434375" lon="9.571216416193405"><ele>141.0</ele><time>2026-04-30T13:04:14.994Z</time></trkpt><trkpt lat="40.81322463733917" lon="9.571107592007749"><ele>141.0</ele><time>2026-04-30T13:04:15.994Z</time></trkpt><trkpt lat="40.81318959325036" lon="9.571002450465933"><ele>141.0</ele><time>2026-04-30T13:04:16.994Z</time></trkpt><trkpt lat="40.81317871538021" lon="9.570882291916325"><ele>141.4</ele><time>2026-04-30T13:04:17.994Z</time></trkpt><trkpt lat="40.813215032287395" lon="9.57077694848026"><ele>141.8</ele><time>2026-04-30T13:04:18.994Z</time></trkpt><trkpt lat="40.813259378570756" lon="9.570678462252227"><ele>142.20000000000002</ele><time>2026-04-30T13:04:19.994Z</time></trkpt><trkpt lat="40.81328680461191" lon="9.570518501662209"><ele>142.6</ele><time>2026-04-30T13:04:21.994Z</time></trkpt><trkpt lat="40.81324052570637" lon="9.570383534317259"><ele>143.0</ele><time>2026-04-30T13:04:23.992Z</time></trkpt><trkpt lat="40.813187059843315" lon="9.57029725468553"><ele>145.75</ele><time>2026-04-30T13:04:24.993Z</time></trkpt><trkpt lat="40.81313325584488" lon="9.570162818976016"><ele>148.5</ele><time>2026-04-30T13:04:25.993Z</time></trkpt><trkpt lat="40.8130782956108" lon="9.569990370756468"><ele>151.25</ele><time>2026-04-30T13:04:26.993Z</time></trkpt><trkpt lat="40.81304760222672" lon="9.569832246411867"><ele>154.0</ele><time>2026-04-30T13:04:27.992Z</time></trkpt><trkpt lat="40.813026553037716" lon="9.569697835380067"><ele>154.0</ele><time>2026-04-30T13:04:28.992Z</time></trkpt><trkpt lat="40.8129845694707" lon="9.569585472976508"><ele>154.0</ele><time>2026-04-30T13:04:29.993Z</time></trkpt><trkpt lat="40.81293393679666" lon="9.569491406854468"><ele>154.0</ele><time>2026-04-30T13:04:30.992Z</time></trkpt><trkpt lat="40.81285618883734" lon="9.569410664888084"><ele>154.0</ele><time>2026-04-30T13:04:31.992Z</time></trkpt><trkpt lat="40.812774275060136" lon="9.569323480702066"><ele>154.0</ele><time>2026-04-30T13:04:32.992Z</time></trkpt><trkpt lat="40.81268607675878" lon="9.56920520302427"><ele>155.25</ele><time>2026-04-30T13:04:33.992Z</time></trkpt><trkpt lat="40.81260793532286" lon="9.569079024497412"><ele>156.5</ele><time>2026-04-30T13:04:34.992Z</time></trkpt><trkpt lat="40.8125299516487" lon="9.568939350625874"><ele>157.75</ele><time>2026-04-30T13:04:35.992Z</time></trkpt><trkpt lat="40.81245929113204" lon="9.568799283581118"><ele>159.0</ele><time>2026-04-30T13:04:36.992Z</time></trkpt><trkpt lat="40.812385628648414" lon="9.568660519451827"><ele>161.0</ele><time>2026-04-30T13:04:37.992Z</time></trkpt><trkpt lat="40.81231660798236" lon="9.568542693777946"><ele>163.0</ele><time>2026-04-30T13:04:38.992Z</time></trkpt><trkpt lat="40.81224586473608" lon="9.568421213896393"><ele>165.0</ele><time>2026-04-30T13:04:39.992Z</time></trkpt><trkpt lat="40.81217360964289" lon="9.568302411560943"><ele>167.0</ele><time>2026-04-30T13:04:40.992Z</time></trkpt><trkpt lat="40.812082438063136" lon="9.568168019124146"><ele>167.0</ele><time>2026-04-30T13:04:41.992Z</time></trkpt><trkpt lat="40.81200482747225" lon="9.568032103430406"><ele>167.0</ele><time>2026-04-30T13:04:42.992Z</time></trkpt><trkpt lat="40.81191350154418" lon="9.567917424408062"><ele>167.0</ele><time>2026-04-30T13:04:43.992Z</time></trkpt><trkpt lat="40.81185094806576" lon="9.567791559968772"><ele>167.0</ele><time>2026-04-30T13:04:44.992Z</time></trkpt><trkpt lat="40.811790494481414" lon="9.567666739547391"><ele>167.33333333333331</ele><time>2026-04-30T13:04:45.992Z</time></trkpt><trkpt lat="40.811739630130475" lon="9.56755260615662"><ele>167.66666666666666</ele><time>2026-04-30T13:04:46.992Z</time></trkpt><trkpt lat="40.811694110294" lon="9.56744057606015"><ele>168.0</ele><time>2026-04-30T13:04:47.992Z</time></trkpt><trkpt lat="40.81165372827199" lon="9.567345967775118"><ele>168.33333333333334</ele><time>2026-04-30T13:04:48.992Z</time></trkpt><trkpt lat="40.81162529881336" lon="9.567262237208281"><ele>168.66666666666669</ele><time>2026-04-30T13:04:49.992Z</time></trkpt><trkpt lat="40.81159731416163" lon="9.5671708253239"><ele>169.0</ele><time>2026-04-30T13:04:50.992Z</time></trkpt><trkpt lat="40.811569091128064" lon="9.567075318868895"><ele>143.0</ele><time>2026-04-30T13:04:51.992Z</time></trkpt><trkpt lat="40.81328680461191" lon="9.570518501662209"><ele>143.0</ele><time>2026-04-30T13:04:21.994Z</time></trkpt><trkpt lat="40.81324052570637" lon="9.570383534317259"><ele>143.0</ele><time>2026-04-30T13:04:23.992Z</time></trkpt><trkpt lat="40.813187059843315" lon="9.57029725468553"><ele>143.0</ele><time>2026-04-30T13:04:24.993Z</time></trkpt><trkpt lat="40.81313325584488" lon="9.570162818976016"><ele>143.0</ele><time>2026-04-30T13:04:25.993Z</time></trkpt><trkpt lat="40.8130782956108" lon="9.569990370756468"><ele>145.20000000000002</ele><time>2026-04-30T13:04:26.993Z</time></trkpt><trkpt lat="40.81304760222672" lon="9.569832246411867"><ele>147.4</ele><time>2026-04-30T13:04:27.992Z</time></trkpt><trkpt lat="40.813026553037716" lon="9.569697835380067"><ele>149.60000000000002</ele><time>2026-04-30T13:04:28.992Z</time></trkpt><trkpt lat="40.8129845694707" lon="9.569585472976508"><ele>151.8</ele><time>2026-04-30T13:04:29.993Z</time></trkpt><trkpt lat="40.81293393679666" lon="9.569491406854468"><ele>154.0</ele><time>2026-04-30T13:04:30.992Z</time></trkpt><trkpt lat="40.81285618883734" lon="9.569410664888084"><ele>155.25</ele><time>2026-04-30T13:04:31.992Z</time></trkpt><trkpt lat="40.812774275060136" lon="9.569323480702066"><ele>156.5</ele><time>2026-04-30T13:04:32.992Z</time></trkpt><trkpt lat="40.81268607675878" lon="9.56920520302427"><ele>157.75</ele><time>2026-04-30T13:04:33.992Z</time></trkpt><trkpt lat="40.81260793532286" lon="9.569079024497412"><ele>159.0</ele><time>2026-04-30T13:04:34.992Z</time></trkpt><trkpt lat="40.8125299516487" lon="9.568939350625874"><ele>159.0</ele><time>2026-04-30T13:04:35.992Z</time></trkpt><trkpt lat="40.81245929113204" lon="9.568799283581118"><ele>159.0</ele><time>2026-04-30T13:04:36.992Z</time></trkpt><trkpt lat="40.812385628648414" lon="9.568660519451827"><ele>159.0</ele><time>2026-04-30T13:04:37.992Z</time></trkpt><trkpt lat="40.81231660798236" lon="9.568542693777946"><ele>159.0</ele><time>2026-04-30T13:04:38.992Z</time></trkpt><trkpt lat="40.81224586473608" lon="9.568421213896393"><ele>161.0</ele><time>2026-04-30T13:04:39.992Z</time></trkpt><trkpt lat="40.81217360964289" lon="9.568302411560943"><ele>163.0</ele><time>2026-04-30T13:04:40.992Z</time></trkpt><trkpt lat="40.812082438063136" lon="9.568168019124146"><ele>165.0</ele><time>2026-04-30T13:04:41.992Z</time></trkpt><trkpt lat="40.81200482747225" lon="9.568032103430406"><ele>167.0</ele><time>2026-04-30T13:04:42.992Z</time></trkpt><trkpt lat="40.81191350154418" lon="9.567917424408062"><ele>167.39999999999998</ele><time>2026-04-30T13:04:43.992Z</time></trkpt><trkpt lat="40.81185094806576" lon="9.567791559968772"><ele>167.79999999999998</ele><time>2026-04-30T13:04:44.992Z</time></trkpt><trkpt lat="40.811790494481414" lon="9.567666739547391"><ele>168.2</ele><time>2026-04-30T13:04:45.992Z</time></trkpt><trkpt lat="40.811739630130475" lon="9.56755260615662"><ele>168.6</ele><time>2026-04-30T13:04:46.992Z</time></trkpt><trkpt lat="40.811694110294" lon="9.56744057606015"><ele>169.0</ele><time>2026-04-30T13:04:47.992Z</time></trkpt><trkpt lat="40.81165372827199" lon="9.567345967775118"><ele>169.0</ele><time>2026-04-30T13:04:48.992Z</time></trkpt><trkpt lat="40.81162529881336" lon="9.567262237208281"><ele>169.0</ele><time>2026-04-30T13:04:49.992Z</time></trkpt><trkpt lat="40.81159731416163" lon="9.5671708253239"><ele>169.0</ele><time>2026-04-30T13:04:50.992Z</time></trkpt><trkpt lat="40.811569091128064" lon="9.567075318868895"><ele>169.0</ele><time>2026-04-30T13:04:51.992Z</time></trkpt><trkpt lat="40.81153239782088" lon="9.566966697625286"><ele>169.0</ele><time>2026-04-30T13:04:52.992Z</time></trkpt><trkpt lat="40.81147855682925" lon="9.566839135547957"><ele>169.0</ele><time>2026-04-30T13:04:53.992Z</time></trkpt><trkpt lat="40.811431180855855" lon="9.566692742595887"><ele>169.2</ele><time>2026-04-30T13:04:54.992Z</time></trkpt><trkpt lat="40.81138816162368" lon="9.566545730026508"><ele>169.39999999999998</ele><time>2026-04-30T13:04:55.992Z</time></trkpt><trkpt lat="40.81134785905508" lon="9.566398175216104"><ele>169.6</ele><time>2026-04-30T13:04:56.992Z</time></trkpt><trkpt lat="40.81130930600192" lon="9.56626914636319"><ele>169.8</ele><time>2026-04-30T13:04:57.992Z</time></trkpt><trkpt lat="40.81126709819765" lon="9.566142605365691"><ele>170.0</ele><time>2026-04-30T13:04:58.992Z</time></trkpt><trkpt lat="40.811224648525496" lon="9.566023212891487"><ele>170.2</ele><time>2026-04-30T13:04:59.992Z</time></trkpt><trkpt lat="40.81118464624317" lon="9.56590229800716"><ele>170.4</ele><time>2026-04-30T13:05:00.992Z</time></trkpt><trkpt lat="40.811144355008935" lon="9.565783227120692"><ele>170.60000000000002</ele><time>2026-04-30T13:05:01.992Z</time></trkpt><trkpt lat="40.81109824509361" lon="9.565667979115052"><ele>170.8</ele><time>2026-04-30T13:05:02.992Z</time></trkpt><trkpt lat="40.81103958193633" lon="9.565564342499538"><ele>171.0</ele><time>2026-04-30T13:05:03.992Z</time></trkpt><trkpt lat="40.810965993047176" lon="9.565473561116583"><ele>168.5</ele><time>2026-04-30T13:05:04.992Z</time></trkpt><trkpt lat="40.81089341258884" lon="9.565377048382018"><ele>166.0</ele><time>2026-04-30T13:05:05.992Z</time></trkpt><trkpt lat="40.81083049744203" lon="9.565291857661537"><ele>163.5</ele><time>2026-04-30T13:05:06.992Z</time></trkpt><trkpt lat="40.81078055590895" lon="9.56521929228798"><ele>161.0</ele><time>2026-04-30T13:05:07.992Z</time></trkpt><trkpt lat="40.81074007779215" lon="9.565138251494027"><ele>158.5</ele><time>2026-04-30T13:05:08.992Z</time></trkpt><trkpt lat="40.81072603199932" lon="9.565034351748311"><ele>156.0</ele><time>2026-04-30T13:05:09.992Z</time></trkpt><trkpt lat="40.810719518071934" lon="9.564937517248078"><ele>154.8</ele><time>2026-04-30T13:05:10.992Z</time></trkpt><trkpt lat="40.81071453255196" lon="9.564841983863825"><ele>153.6</ele><time>2026-04-30T13:05:11.992Z</time></trkpt><trkpt lat="40.81070950997108" lon="9.564738018915223"><ele>152.4</ele><time>2026-04-30T13:05:12.992Z</time></trkpt><trkpt lat="40.81069848423653" lon="9.564617057686553"><ele>151.2</ele><time>2026-04-30T13:05:13.992Z</time></trkpt><trkpt lat="40.810651529523184" lon="9.56448687735622"><ele>150.0</ele><time>2026-04-30T13:05:14.992Z</time></trkpt><trkpt lat="40.810618758564296" lon="9.564346883367154"><ele>149.2</ele><time>2026-04-30T13:05:15.992Z</time></trkpt><trkpt lat="40.81059026079906" lon="9.564210134242835"><ele>148.4</ele><time>2026-04-30T13:05:16.992Z</time></trkpt><trkpt lat="40.81057120055125" lon="9.564074703520848"><ele>147.6</ele><time>2026-04-30T13:05:17.992Z</time></trkpt><trkpt lat="40.81060863896191" lon="9.563937485830891"><ele>146.8</ele><time>2026-04-30T13:05:18.992Z</time></trkpt><trkpt lat="40.81061984887465" lon="9.563796216127962"><ele>146.0</ele><time>2026-04-30T13:05:19.992Z</time></trkpt><trkpt lat="40.81063522241282" lon="9.563651640339472"><ele>145.33333333333331</ele><time>2026-04-30T13:05:20.992Z</time></trkpt><trkpt lat="40.81063917420118" lon="9.5635361031489"><ele>144.66666666666666</ele><time>2026-04-30T13:05:21.992Z</time></trkpt><trkpt lat="40.810620225487135" lon="9.563425133700626"><ele>144.0</ele><time>2026-04-30T13:05:22.992Z</time></trkpt><trkpt lat="40.81059955949866" lon="9.563333976165445"><ele>143.33333333333334</ele><time>2026-04-30T13:05:23.992Z</time></trkpt><trkpt lat="40.81057164472878" lon="9.563233128937789"><ele>142.66666666666669</ele><time>2026-04-30T13:05:24.992Z</time></trkpt><trkpt lat="40.810537793443984" lon="9.563080402681974"><ele>142.0</ele><time>2026-04-30T13:05:26.992Z</time></trkpt><trkpt lat="40.810486331734346" lon="9.563030403245463"><ele>142.0</ele><time>2026-04-30T13:05:27.992Z</time></trkpt><trkpt lat="40.810422927043426" lon="9.562998091695261"><ele>142.0</ele><time>2026-04-30T13:05:28.992Z</time></trkpt><trkpt lat="40.81032262065954" lon="9.562965903978842"><ele>142.0</ele><time>2026-04-30T13:05:29.992Z</time></trkpt><trkpt lat="40.81023782132935" lon="9.562929256985072"><ele>142.0</ele><time>2026-04-30T13:05:30.992Z</time></trkpt><trkpt lat="40.81019837010393" lon="9.562788533512416"><ele>142.0</ele><time>2026-04-30T13:05:32.992Z</time></trkpt><trkpt lat="40.810199565529295" lon="9.562701098251797"><ele>142.0</ele><time>2026-04-30T13:05:33.992Z</time></trkpt><trkpt lat="40.81021213511676" lon="9.56259722271787"><ele>141.4</ele><time>2026-04-30T13:05:34.992Z</time></trkpt><trkpt lat="40.810208950773266" lon="9.562480543881492"><ele>140.79999999999998</ele><time>2026-04-30T13:05:35.992Z</time></trkpt><trkpt lat="40.81020951413623" lon="9.562337609465695"><ele>140.2</ele><time>2026-04-30T13:05:36.992Z</time></trkpt><trkpt lat="40.81020769234668" lon="9.562190821732493"><ele>139.6</ele><time>2026-04-30T13:05:37.992Z</time></trkpt><trkpt lat="40.81019878443833" lon="9.562044037462407"><ele>139.0</ele><time>2026-04-30T13:05:38.992Z</time></trkpt><trkpt lat="40.81018596005955" lon="9.561902639852235"><ele>137.75</ele><time>2026-04-30T13:05:39.992Z</time></trkpt><trkpt lat="40.810170307756714" lon="9.561749233838277"><ele>136.5</ele><time>2026-04-30T13:05:40.992Z</time></trkpt><trkpt lat="40.81013866516523" lon="9.561589521508768"><ele>135.25</ele><time>2026-04-30T13:05:41.992Z</time></trkpt><trkpt lat="40.8101021809631" lon="9.561428962974198"><ele>134.0</ele><time>2026-04-30T13:05:42.992Z</time></trkpt><trkpt lat="40.81006084158263" lon="9.561258867182584"><ele>132.75</ele><time>2026-04-30T13:05:43.992Z</time></trkpt><trkpt lat="40.81002129458093" lon="9.561090357563458"><ele>131.5</ele><time>2026-04-30T13:05:44.992Z</time></trkpt><trkpt lat="40.80999481289986" lon="9.56093351610543"><ele>130.25</ele><time>2026-04-30T13:05:45.992Z</time></trkpt><trkpt lat="40.80998921038549" lon="9.56079028535167"><ele>129.0</ele><time>2026-04-30T13:05:46.992Z</time></trkpt><trkpt lat="40.80999853716755" lon="9.560638631044627"><ele>129.0</ele><time>2026-04-30T13:05:47.992Z</time></trkpt><trkpt lat="40.81000775145933" lon="9.560475257805017"><ele>129.0</ele><time>2026-04-30T13:05:48.992Z</time></trkpt><trkpt lat="40.81003253242605" lon="9.560295611204262"><ele>129.0</ele><time>2026-04-30T13:05:49.992Z</time></trkpt><trkpt lat="40.81002947090783" lon="9.560116737867425"><ele>129.0</ele><time>2026-04-30T13:05:50.993Z</time></trkpt><trkpt lat="40.810028585356356" lon="9.559952342206087"><ele>128.75</ele><time>2026-04-30T13:05:51.993Z</time></trkpt><trkpt lat="40.810040437690745" lon="9.559778795389962"><ele>128.5</ele><time>2026-04-30T13:05:52.993Z</time></trkpt><trkpt lat="40.810061674436746" lon="9.559612199533996"><ele>128.25</ele><time>2026-04-30T13:05:53.993Z</time></trkpt><trkpt lat="40.81007893656578" lon="9.559427489486717"><ele>128.0</ele><time>2026-04-30T13:05:54.993Z</time></trkpt><trkpt lat="40.81009337201225" lon="9.55926792605127"><ele>128.0</ele><time>2026-04-30T13:05:55.993Z</time></trkpt><trkpt lat="40.810124710295334" lon="9.559130679479622"><ele>128.0</ele><time>2026-04-30T13:05:56.993Z</time></trkpt><trkpt lat="40.810149830181906" lon="9.558995120767449"><ele>128.0</ele><time>2026-04-30T13:05:57.993Z</time></trkpt><trkpt lat="40.81017257301994" lon="9.558835619699028"><ele>128.0</ele><time>2026-04-30T13:05:58.993Z</time></trkpt><trkpt lat="40.81022808554245" lon="9.55868554187228"><ele>126.5</ele><time>2026-04-30T13:05:59.993Z</time></trkpt><trkpt lat="40.81026602104444" lon="9.558535111553123"><ele>125.0</ele><time>2026-04-30T13:06:00.993Z</time></trkpt><trkpt lat="40.81028815635233" lon="9.558376118444025"><ele>123.5</ele><time>2026-04-30T13:06:01.993Z</time></trkpt><trkpt lat="40.81031315052203" lon="9.558209600289024"><ele>122.0</ele><time>2026-04-30T13:06:02.993Z</time></trkpt><trkpt lat="40.810328533210786" lon="9.55804014166538"><ele>122.0</ele><time>2026-04-30T13:06:03.993Z</time></trkpt><trkpt lat="40.810330223767075" lon="9.557876678158728"><ele>122.0</ele><time>2026-04-30T13:06:04.993Z</time></trkpt><trkpt lat="40.81032216131204" lon="9.557728110608767"><ele>122.0</ele><time>2026-04-30T13:06:05.993Z</time></trkpt><trkpt lat="40.81030526262218" lon="9.55759424134819"><ele>122.0</ele><time>2026-04-30T13:06:06.993Z</time></trkpt><trkpt lat="40.8102827667497" lon="9.55744715366737"><ele>122.6</ele><time>2026-04-30T13:06:07.993Z</time></trkpt><trkpt lat="40.81025622510316" lon="9.55728433787364"><ele>123.19999999999999</ele><time>2026-04-30T13:06:08.993Z</time></trkpt><trkpt lat="40.8102367109315" lon="9.55714719186935"><ele>123.8</ele><time>2026-04-30T13:06:09.993Z</time></trkpt><trkpt lat="40.810230136257324" lon="9.557018257291507"><ele>124.4</ele><time>2026-04-30T13:06:10.993Z</time></trkpt><trkpt lat="40.8102427829676" lon="9.55690630779478"><ele>125.0</ele><time>2026-04-30T13:06:11.993Z</time></trkpt><trkpt lat="40.810298577582515" lon="9.556817606025076"><ele>125.0</ele><time>2026-04-30T13:06:12.993Z</time></trkpt><trkpt lat="40.810335449972435" lon="9.556689793143585"><ele>125.0</ele><time>2026-04-30T13:06:13.993Z</time></trkpt><trkpt lat="40.81033538614213" lon="9.556548283558627"><ele>125.0</ele><time>2026-04-30T13:06:14.993Z</time></trkpt><trkpt lat="40.810347428115726" lon="9.556401463435169"><ele>125.0</ele><time>2026-04-30T13:06:15.993Z</time></trkpt><trkpt lat="40.81037049085179" lon="9.556247872068168"><ele>125.0</ele><time>2026-04-30T13:06:16.993Z</time></trkpt><trkpt lat="40.810390208730354" lon="9.556083579918075"><ele>123.75</ele><time>2026-04-30T13:06:17.993Z</time></trkpt><trkpt lat="40.81040492405528" lon="9.555893389655655"><ele>122.5</ele><time>2026-04-30T13:06:18.993Z</time></trkpt><trkpt lat="40.81041995588524" lon="9.555708794647684"><ele>121.25</ele><time>2026-04-30T13:06:19.993Z</time></trkpt><trkpt lat="40.81043719475347" lon="9.555548231622803"><ele>120.0</ele><time>2026-04-30T13:06:20.993Z</time></trkpt><trkpt lat="40.8104545401157" lon="9.555414422296892"><ele>117.8</ele><time>2026-04-30T13:06:21.993Z</time></trkpt><trkpt lat="40.81048356243211" lon="9.555308642022633"><ele>115.6</ele><time>2026-04-30T13:06:22.993Z</time></trkpt><trkpt lat="40.81053758889914" lon="9.555212300015471"><ele>113.4</ele><time>2026-04-30T13:06:23.993Z</time></trkpt><trkpt lat="40.810615893007" lon="9.555103345778075"><ele>111.2</ele><time>2026-04-30T13:06:24.993Z</time></trkpt><trkpt lat="40.810703723277584" lon="9.554986659037397"><ele>109.0</ele><time>2026-04-30T13:06:25.993Z</time></trkpt><trkpt lat="40.81079707064103" lon="9.55486065032014"><ele>109.0</ele><time>2026-04-30T13:06:26.993Z</time></trkpt><trkpt lat="40.81089340308929" lon="9.554737513396423"><ele>109.0</ele><time>2026-04-30T13:06:27.993Z</time></trkpt><trkpt lat="40.81096820015434" lon="9.55460143417721"><ele>109.0</ele><time>2026-04-30T13:06:28.993Z</time></trkpt><trkpt lat="40.81104635430286" lon="9.554458865359871"><ele>109.0</ele><time>2026-04-30T13:06:29.991Z</time></trkpt><trkpt lat="40.81112698951655" lon="9.554300437539176"><ele>110.66666666666667</ele><time>2026-04-30T13:06:30.991Z</time></trkpt><trkpt lat="40.811208688879404" lon="9.554133955040184"><ele>112.33333333333334</ele><time>2026-04-30T13:06:31.991Z</time></trkpt><trkpt lat="40.81127926506787" lon="9.55395765241817"><ele>114.0</ele><time>2026-04-30T13:06:32.991Z</time></trkpt><trkpt lat="40.81134788835955" lon="9.553776960333485"><ele>111.0</ele><time>2026-04-30T13:06:33.991Z</time></trkpt><trkpt lat="40.811416589881176" lon="9.55361198972128"><ele>108.0</ele><time>2026-04-30T13:06:34.992Z</time></trkpt><trkpt lat="40.811494252516965" lon="9.55345883227157"><ele>105.0</ele><time>2026-04-30T13:06:35.992Z</time></trkpt><trkpt lat="40.811596601948075" lon="9.553317466100589"><ele>102.0</ele><time>2026-04-30T13:06:36.992Z</time></trkpt><trkpt lat="40.81167105949816" lon="9.553160840461569"><ele>102.0</ele><time>2026-04-30T13:06:37.992Z</time></trkpt><trkpt lat="40.81175867414489" lon="9.553009873762658"><ele>102.0</ele><time>2026-04-30T13:06:38.991Z</time></trkpt><trkpt lat="40.81183510289263" lon="9.552852098226953"><ele>102.0</ele><time>2026-04-30T13:06:39.992Z</time></trkpt><trkpt lat="40.811930885239626" lon="9.552703315088628"><ele>102.0</ele><time>2026-04-30T13:06:40.992Z</time></trkpt><trkpt lat="40.81031315052203" lon="9.558209600289024"><ele>107.0</ele><time>2026-04-30T13:06:02.993Z</time></trkpt><trkpt lat="40.810328533210786" lon="9.55804014166538"><ele>112.0</ele><time>2026-04-30T13:06:03.993Z</time></trkpt><trkpt lat="40.810330223767075" lon="9.557876678158728"><ele>117.0</ele><time>2026-04-30T13:06:04.993Z</time></trkpt><trkpt lat="40.81032216131204" lon="9.557728110608767"><ele>122.0</ele><time>2026-04-30T13:06:05.993Z</time></trkpt><trkpt lat="40.81030526262218" lon="9.55759424134819"><ele>122.6</ele><time>2026-04-30T13:06:06.993Z</time></trkpt><trkpt lat="40.8102827667497" lon="9.55744715366737"><ele>123.19999999999999</ele><time>2026-04-30T13:06:07.993Z</time></trkpt><trkpt lat="40.81025622510316" lon="9.55728433787364"><ele>123.8</ele><time>2026-04-30T13:06:08.993Z</time></trkpt><trkpt lat="40.8102367109315" lon="9.55714719186935"><ele>124.4</ele><time>2026-04-30T13:06:09.993Z</time></trkpt><trkpt lat="40.810230136257324" lon="9.557018257291507"><ele>125.0</ele><time>2026-04-30T13:06:10.993Z</time></trkpt><trkpt lat="40.8102427829676" lon="9.55690630779478"><ele>125.0</ele><time>2026-04-30T13:06:11.993Z</time></trkpt><trkpt lat="40.810298577582515" lon="9.556817606025076"><ele>125.0</ele><time>2026-04-30T13:06:12.993Z</time></trkpt><trkpt lat="40.810335449972435" lon="9.556689793143585"><ele>125.0</ele><time>2026-04-30T13:06:13.993Z</time></trkpt><trkpt lat="40.81033538614213" lon="9.556548283558627"><ele>125.0</ele><time>2026-04-30T13:06:14.993Z</time></trkpt><trkpt lat="40.810347428115726" lon="9.556401463435169"><ele>125.0</ele><time>2026-04-30T13:06:15.993Z</time></trkpt><trkpt lat="40.81037049085179" lon="9.556247872068168"><ele>123.75</ele><time>2026-04-30T13:06:16.993Z</time></trkpt><trkpt lat="40.810390208730354" lon="9.556083579918075"><ele>122.5</ele><time>2026-04-30T13:06:17.993Z</time></trkpt><trkpt lat="40.81040492405528" lon="9.555893389655655"><ele>121.25</ele><time>2026-04-30T13:06:18.993Z</time></trkpt><trkpt lat="40.81041995588524" lon="9.555708794647684"><ele>120.0</ele><time>2026-04-30T13:06:19.993Z</time></trkpt><trkpt lat="40.81043719475347" lon="9.555548231622803"><ele>120.0</ele><time>2026-04-30T13:06:20.993Z</time></trkpt><trkpt lat="40.8104545401157" lon="9.555414422296892"><ele>120.0</ele><time>2026-04-30T13:06:21.993Z</time></trkpt><trkpt lat="40.81048356243211" lon="9.555308642022633"><ele>120.0</ele><time>2026-04-30T13:06:22.993Z</time></trkpt><trkpt lat="40.81053758889914" lon="9.555212300015471"><ele>120.0</ele><time>2026-04-30T13:06:23.993Z</time></trkpt><trkpt lat="40.810615893007" lon="9.555103345778075"><ele>120.0</ele><time>2026-04-30T13:06:24.993Z</time></trkpt><trkpt lat="40.810703723277584" lon="9.554986659037397"><ele>118.5</ele><time>2026-04-30T13:06:25.993Z</time></trkpt><trkpt lat="40.81079707064103" lon="9.55486065032014"><ele>117.0</ele><time>2026-04-30T13:06:26.993Z</time></trkpt><trkpt lat="40.81089340308929" lon="9.554737513396423"><ele>115.5</ele><time>2026-04-30T13:06:27.993Z</time></trkpt><trkpt lat="40.81096820015434" lon="9.55460143417721"><ele>114.0</ele><time>2026-04-30T13:06:28.993Z</time></trkpt><trkpt lat="40.81104635430286" lon="9.554458865359871"><ele>114.0</ele><time>2026-04-30T13:06:29.991Z</time></trkpt><trkpt lat="40.81112698951655" lon="9.554300437539176"><ele>114.0</ele><time>2026-04-30T13:06:30.991Z</time></trkpt><trkpt lat="40.811208688879404" lon="9.554133955040184"><ele>114.0</ele><time>2026-04-30T13:06:31.991Z</time></trkpt><trkpt lat="40.81127926506787" lon="9.55395765241817"><ele>114.0</ele><time>2026-04-30T13:06:32.991Z</time></trkpt><trkpt lat="40.81134788835955" lon="9.553776960333485"><ele>111.0</ele><time>2026-04-30T13:06:33.991Z</time></trkpt><trkpt lat="40.811416589881176" lon="9.55361198972128"><ele>108.0</ele><time>2026-04-30T13:06:34.992Z</time></trkpt><trkpt lat="40.811494252516965" lon="9.55345883227157"><ele>105.0</ele><time>2026-04-30T13:06:35.992Z</time></trkpt><trkpt lat="40.811596601948075" lon="9.553317466100589"><ele>102.0</ele><time>2026-04-30T13:06:36.992Z</time></trkpt><trkpt lat="40.81167105949816" lon="9.553160840461569"><ele>102.0</ele><time>2026-04-30T13:06:37.992Z</time></trkpt><trkpt lat="40.81175867414489" lon="9.553009873762658"><ele>102.0</ele><time>2026-04-30T13:06:38.991Z</time></trkpt><trkpt lat="40.81183510289263" lon="9.552852098226953"><ele>102.0</ele><time>2026-04-30T13:06:39.992Z</time></trkpt><trkpt lat="40.811930885239626" lon="9.552703315088628"><ele>102.0</ele><time>2026-04-30T13:06:40.992Z</time></trkpt><trkpt lat="40.81201698291302" lon="9.55254781271628"><ele>101.25</ele><time>2026-04-30T13:06:41.991Z</time></trkpt><trkpt lat="40.81210244673692" lon="9.552408906973202"><ele>100.5</ele><time>2026-04-30T13:06:42.992Z</time></trkpt><trkpt lat="40.812197214899506" lon="9.552288444368859"><ele>99.75</ele><time>2026-04-30T13:06:43.992Z</time></trkpt><trkpt lat="40.81225021910406" lon="9.552143329924226"><ele>99.0</ele><time>2026-04-30T13:06:44.992Z</time></trkpt><trkpt lat="40.812307841937354" lon="9.552004874881252"><ele>97.75</ele><time>2026-04-30T13:06:45.992Z</time></trkpt><trkpt lat="40.812375780918245" lon="9.551858793905694"><ele>96.5</ele><time>2026-04-30T13:06:46.992Z</time></trkpt><trkpt lat="40.81242261233132" lon="9.551696582844398"><ele>95.25</ele><time>2026-04-30T13:06:47.992Z</time></trkpt><trkpt lat="40.81246761532231" lon="9.551552608442393"><ele>94.0</ele><time>2026-04-30T13:06:48.992Z</time></trkpt><trkpt lat="40.81250735545197" lon="9.551432705262929"><ele>94.0</ele><time>2026-04-30T13:06:49.992Z</time></trkpt><trkpt lat="40.812537786279314" lon="9.551351304231433"><ele>94.0</ele><time>2026-04-30T13:06:50.992Z</time></trkpt><trkpt lat="40.81257036922784" lon="9.551250889348708"><ele>94.0</ele><time>2026-04-30T13:06:52.992Z</time></trkpt><trkpt lat="40.81268471861755" lon="9.55127351697611"><ele>94.0</ele><time>2026-04-30T13:06:55.992Z</time></trkpt><trkpt lat="40.812753195346296" lon="9.551299929248545"><ele>94.0</ele><time>2026-04-30T13:06:56.992Z</time></trkpt><trkpt lat="40.8128413466098" lon="9.551333930244308"><ele>94.0</ele><time>2026-04-30T13:06:57.992Z</time></trkpt><trkpt lat="40.81294050003104" lon="9.55137217489569"><ele>95.2</ele><time>2026-04-30T13:06:58.992Z</time></trkpt><trkpt lat="40.813042744903974" lon="9.551411611901264"><ele>96.4</ele><time>2026-04-30T13:06:59.992Z</time></trkpt><trkpt lat="40.81314340467692" lon="9.551434461410212"><ele>97.6</ele><time>2026-04-30T13:07:00.992Z</time></trkpt><trkpt lat="40.81324482830311" lon="9.551491996395255"><ele>98.8</ele><time>2026-04-30T13:07:01.992Z</time></trkpt><trkpt lat="40.813339156436754" lon="9.55149001867811"><ele>100.0</ele><time>2026-04-30T13:07:02.992Z</time></trkpt><trkpt lat="40.8134116534164" lon="9.551484182710634"><ele>100.0</ele><time>2026-04-30T13:07:03.992Z</time></trkpt><trkpt lat="40.81348828069885" lon="9.551425370639679"><ele>100.0</ele><time>2026-04-30T13:07:04.992Z</time></trkpt><trkpt lat="40.813568081869334" lon="9.551346952937868"><ele>100.0</ele><time>2026-04-30T13:07:05.992Z</time></trkpt><trkpt lat="40.81365696844189" lon="9.551267960402454"><ele>100.0</ele><time>2026-04-30T13:07:06.992Z</time></trkpt><trkpt lat="40.81374851542681" lon="9.551194526786155"><ele>100.0</ele><time>2026-04-30T13:07:07.992Z</time></trkpt><trkpt lat="40.813846367999" lon="9.551135774483933"><ele>101.8</ele><time>2026-04-30T13:07:08.992Z</time></trkpt><trkpt lat="40.813936395933474" lon="9.55107036300259"><ele>103.6</ele><time>2026-04-30T13:07:09.992Z</time></trkpt><trkpt lat="40.81402348472496" lon="9.551008408870898"><ele>105.4</ele><time>2026-04-30T13:07:10.992Z</time></trkpt><trkpt lat="40.8141142787945" lon="9.550964448942647"><ele>107.2</ele><time>2026-04-30T13:07:11.992Z</time></trkpt><trkpt lat="40.81420172710381" lon="9.550910832512775"><ele>109.0</ele><time>2026-04-30T13:07:12.992Z</time></trkpt><trkpt lat="40.814291152318454" lon="9.550875344211844"><ele>112.0</ele><time>2026-04-30T13:07:13.992Z</time></trkpt><trkpt lat="40.81438084750535" lon="9.550862700857504"><ele>115.0</ele><time>2026-04-30T13:07:14.992Z</time></trkpt><trkpt lat="40.81448041060741" lon="9.550857270500089"><ele>118.0</ele><time>2026-04-30T13:07:15.992Z</time></trkpt><trkpt lat="40.81457372860355" lon="9.550840296001722"><ele>121.0</ele><time>2026-04-30T13:07:16.992Z</time></trkpt><trkpt lat="40.814651441431664" lon="9.550793999523243"><ele>124.0</ele><time>2026-04-30T13:07:17.992Z</time></trkpt><trkpt lat="40.81470645660144" lon="9.550716255647862"><ele>124.0</ele><time>2026-04-30T13:07:18.992Z</time></trkpt><trkpt lat="40.81476284160671" lon="9.550639223101653"><ele>124.0</ele><time>2026-04-30T13:07:19.992Z</time></trkpt><trkpt lat="40.814847964241835" lon="9.550608525904762"><ele>124.0</ele><time>2026-04-30T13:07:21.992Z</time></trkpt><trkpt lat="40.81496315150459" lon="9.550692613654945"><ele>124.0</ele><time>2026-04-30T13:07:23.992Z</time></trkpt><trkpt lat="40.81506308735151" lon="9.550658996085645"><ele>124.0</ele><time>2026-04-30T13:07:25.992Z</time></trkpt><trkpt lat="40.81510863689868" lon="9.550598401874437"><ele>124.0</ele><time>2026-04-30T13:07:26.992Z</time></trkpt><trkpt lat="40.81515034988083" lon="9.550530333658672"><ele>124.0</ele><time>2026-04-30T13:07:27.992Z</time></trkpt><trkpt lat="40.81528428842008" lon="9.550471663278518"><ele>124.0</ele><time>2026-04-30T13:07:29.992Z</time></trkpt><trkpt lat="40.81535996193919" lon="9.550403034799363"><ele>124.0</ele><time>2026-04-30T13:07:30.992Z</time></trkpt><trkpt lat="40.815448472788525" lon="9.550350062459957"><ele>124.0</ele><time>2026-04-30T13:07:31.992Z</time></trkpt><trkpt lat="40.81552410092075" lon="9.550297708885918"><ele>127.66666666666667</ele><time>2026-04-30T13:07:32.992Z</time></trkpt><trkpt lat="40.815594394849214" lon="9.550248647553703"><ele>131.33333333333334</ele><time>2026-04-30T13:07:34.992Z</time></trkpt><trkpt lat="40.815540242545104" lon="9.550116995597282"><ele>135.0</ele><time>2026-04-30T13:07:36.992Z</time></trkpt><trkpt lat="40.81549486621219" lon="9.550054428853311"><ele>138.66666666666666</ele><time>2026-04-30T13:07:37.992Z</time></trkpt><trkpt lat="40.815432373466585" lon="9.550016440750221"><ele>142.33333333333331</ele><time>2026-04-30T13:07:38.992Z</time></trkpt><trkpt lat="40.81536296356825" lon="9.549992515669222"><ele>146.0</ele><time>2026-04-30T13:07:39.992Z</time></trkpt><trkpt lat="40.81528663043445" lon="9.54995692557239"><ele>146.0</ele><time>2026-04-30T13:07:40.992Z</time></trkpt><trkpt lat="40.81521659478389" lon="9.549894232236324"><ele>146.0</ele><time>2026-04-30T13:07:41.992Z</time></trkpt><trkpt lat="40.815162828116755" lon="9.549805253693652"><ele>146.0</ele><time>2026-04-30T13:07:42.992Z</time></trkpt><trkpt lat="40.815128409990635" lon="9.549687117387993"><ele>146.0</ele><time>2026-04-30T13:07:43.992Z</time></trkpt><trkpt lat="40.81509756500146" lon="9.549569218431893"><ele>146.0</ele><time>2026-04-30T13:07:44.992Z</time></trkpt><trkpt lat="40.81511711211863" lon="9.54943905392823"><ele>143.0</ele><time>2026-04-30T13:07:45.992Z</time></trkpt><trkpt lat="40.81511661402672" lon="9.54929742461587"><ele>140.0</ele><time>2026-04-30T13:07:46.992Z</time></trkpt><trkpt lat="40.815138060252096" lon="9.549153303522866"><ele>137.0</ele><time>2026-04-30T13:07:47.992Z</time></trkpt><trkpt lat="40.81514296273617" lon="9.549016456175284"><ele>134.0</ele><time>2026-04-30T13:07:48.992Z</time></trkpt><trkpt lat="40.81513666582119" lon="9.548891356611604"><ele>131.0</ele><time>2026-04-30T13:07:49.992Z</time></trkpt><trkpt lat="40.815109237747336" lon="9.548787507191825"><ele>131.16666666666666</ele><time>2026-04-30T13:07:50.992Z</time></trkpt><trkpt lat="40.81505469010388" lon="9.548685656724041"><ele>131.33333333333331</ele><time>2026-04-30T13:07:51.992Z</time></trkpt><trkpt lat="40.814988395547665" lon="9.548602736331908"><ele>131.5</ele><time>2026-04-30T13:07:52.992Z</time></trkpt><trkpt lat="40.81493223912209" lon="9.548517630149245"><ele>131.66666666666666</ele><time>2026-04-30T13:07:53.992Z</time></trkpt><trkpt lat="40.81490325984939" lon="9.548427836804695"><ele>131.83333333333334</ele><time>2026-04-30T13:07:54.992Z</time></trkpt><trkpt lat="40.8149036584838" lon="9.548331540973015"><ele>132.0</ele><time>2026-04-30T13:07:55.992Z</time></trkpt><trkpt lat="40.8149642342733" lon="9.548220930496568"><ele>132.0</ele><time>2026-04-30T13:07:56.992Z</time></trkpt><trkpt lat="40.81500462990207" lon="9.548104521309998"><ele>132.0</ele><time>2026-04-30T13:07:57.992Z</time></trkpt><trkpt lat="40.815051193336075" lon="9.547969792005086"><ele>132.0</ele><time>2026-04-30T13:07:58.992Z</time></trkpt><trkpt lat="40.815104606497144" lon="9.547829046512422"><ele>132.0</ele><time>2026-04-30T13:07:59.992Z</time></trkpt><trkpt lat="40.815155155191746" lon="9.547687510264586"><ele>132.0</ele><time>2026-04-30T13:08:00.992Z</time></trkpt><trkpt lat="40.81520157073639" lon="9.547561879292036"><ele>133.4</ele><time>2026-04-30T13:08:01.992Z</time></trkpt><trkpt lat="40.8152537760344" lon="9.547464747170977"><ele>134.79999999999998</ele><time>2026-04-30T13:08:02.992Z</time></trkpt><trkpt lat="40.81532648839898" lon="9.54739345949461"><ele>136.2</ele><time>2026-04-30T13:08:03.992Z</time></trkpt><trkpt lat="40.815411392574006" lon="9.547316002388197"><ele>137.6</ele><time>2026-04-30T13:08:04.992Z</time></trkpt><trkpt lat="40.815511214086065" lon="9.547230279028375"><ele>139.0</ele><time>2026-04-30T13:08:05.992Z</time></trkpt><trkpt lat="40.815620766471554" lon="9.54714877603844"><ele>139.0</ele><time>2026-04-30T13:08:06.992Z</time></trkpt><trkpt lat="40.815734185018854" lon="9.547068830683859"><ele>139.0</ele><time>2026-04-30T13:08:07.992Z</time></trkpt><trkpt lat="40.81585671146152" lon="9.546993778959308"><ele>139.0</ele><time>2026-04-30T13:08:08.992Z</time></trkpt><trkpt lat="40.81598224960645" lon="9.546929365371254"><ele>139.0</ele><time>2026-04-30T13:08:09.993Z</time></trkpt><trkpt lat="40.8161050503556" lon="9.546880057806773"><ele>139.25</ele><time>2026-04-30T13:08:10.993Z</time></trkpt><trkpt lat="40.81623015417696" lon="9.546840333602097"><ele>139.5</ele><time>2026-04-30T13:08:11.993Z</time></trkpt><trkpt lat="40.81633827652729" lon="9.546798976915369"><ele>139.75</ele><time>2026-04-30T13:08:12.993Z</time></trkpt><trkpt lat="40.816446571033545" lon="9.546741182699916"><ele>140.0</ele><time>2026-04-30T13:08:13.993Z</time></trkpt><trkpt lat="40.81652647111805" lon="9.546649711242116"><ele>140.0</ele><time>2026-04-30T13:08:14.993Z</time></trkpt><trkpt lat="40.8166085720748" lon="9.546530213051991"><ele>140.0</ele><time>2026-04-30T13:08:15.993Z</time></trkpt><trkpt lat="40.81668668605508" lon="9.546397410937464"><ele>140.0</ele><time>2026-04-30T13:08:16.993Z</time></trkpt><trkpt lat="40.81677277332693" lon="9.546269168110712"><ele>140.0</ele><time>2026-04-30T13:08:17.993Z</time></trkpt><trkpt lat="40.81687228286697" lon="9.546151904343711"><ele>138.5</ele><time>2026-04-30T13:08:18.993Z</time></trkpt><trkpt lat="40.8169774625848" lon="9.546049699207959"><ele>137.0</ele><time>2026-04-30T13:08:19.993Z</time></trkpt><trkpt lat="40.81709367792192" lon="9.545977522146577"><ele>135.5</ele><time>2026-04-30T13:08:20.993Z</time></trkpt><trkpt lat="40.817209211899524" lon="9.545904416806863"><ele>134.0</ele><time>2026-04-30T13:08:21.993Z</time></trkpt><trkpt lat="40.81730748813253" lon="9.545824747053912"><ele>134.0</ele><time>2026-04-30T13:08:22.993Z</time></trkpt><trkpt lat="40.817393436736026" lon="9.545740694336153"><ele>134.0</ele><time>2026-04-30T13:08:23.993Z</time></trkpt><trkpt lat="40.817457318331385" lon="9.54567232296269"><ele>134.0</ele><time>2026-04-30T13:08:24.993Z</time></trkpt><trkpt lat="40.81749228760945" lon="9.545595487710798"><ele>134.0</ele><time>2026-04-30T13:08:25.993Z</time></trkpt><trkpt lat="40.817510258895" lon="9.545508255114147"><ele>134.0</ele><time>2026-04-30T13:08:26.993Z</time></trkpt><trkpt lat="40.817506626705864" lon="9.545382127018824"><ele>134.0</ele><time>2026-04-30T13:08:27.993Z</time></trkpt><trkpt lat="40.81751472808592" lon="9.54524401597181"><ele>133.75</ele><time>2026-04-30T13:08:28.993Z</time></trkpt><trkpt lat="40.81753122686866" lon="9.545087563083829"><ele>133.5</ele><time>2026-04-30T13:08:29.993Z</time></trkpt><trkpt lat="40.817559456330166" lon="9.544935539732993"><ele>133.25</ele><time>2026-04-30T13:08:30.993Z</time></trkpt><trkpt lat="40.817585632752504" lon="9.544771794075256"><ele>133.0</ele><time>2026-04-30T13:08:31.993Z</time></trkpt><trkpt lat="40.81760489186518" lon="9.544621325463442"><ele>132.6</ele><time>2026-04-30T13:08:32.993Z</time></trkpt><trkpt lat="40.81762140023354" lon="9.544468184513839"><ele>132.20000000000002</ele><time>2026-04-30T13:08:33.993Z</time></trkpt><trkpt lat="40.81763255830688" lon="9.544319494153186"><ele>131.8</ele><time>2026-04-30T13:08:34.993Z</time></trkpt><trkpt lat="40.81765269531116" lon="9.544196280112931"><ele>131.4</ele><time>2026-04-30T13:08:35.99Z</time></trkpt><trkpt lat="40.8176720350393" lon="9.54410302515957"><ele>131.0</ele><time>2026-04-30T13:08:36.99Z</time></trkpt><trkpt lat="40.81774575416896" lon="9.543986953075628"><ele>125.8</ele><time>2026-04-30T13:08:38.991Z</time></trkpt><trkpt lat="40.817831597178014" lon="9.54395170339655"><ele>120.6</ele><time>2026-04-30T13:08:39.99Z</time></trkpt><trkpt lat="40.81792999275322" lon="9.543913702987895"><ele>115.4</ele><time>2026-04-30T13:08:40.99Z</time></trkpt><trkpt lat="40.818035960629686" lon="9.543889747529747"><ele>110.2</ele><time>2026-04-30T13:08:41.99Z</time></trkpt><trkpt lat="40.818143108019925" lon="9.543853906873629"><ele>105.0</ele><time>2026-04-30T13:08:42.991Z</time></trkpt><trkpt lat="40.81824479430229" lon="9.543816182411225"><ele>105.0</ele><time>2026-04-30T13:08:43.991Z</time></trkpt><trkpt lat="40.818337334545795" lon="9.543764657891172"><ele>105.0</ele><time>2026-04-30T13:08:44.99Z</time></trkpt><trkpt lat="40.81842868211167" lon="9.543714446692713"><ele>105.0</ele><time>2026-04-30T13:08:45.991Z</time></trkpt><trkpt lat="40.81849000708801" lon="9.543650901203831"><ele>105.0</ele><time>2026-04-30T13:08:46.991Z</time></trkpt><trkpt lat="40.81852997751195" lon="9.543571198774078"><ele>105.0</ele><time>2026-04-30T13:08:47.99Z</time></trkpt><trkpt lat="40.81855999388429" lon="9.543476739852824"><ele>105.0</ele><time>2026-04-30T13:08:48.99Z</time></trkpt><trkpt lat="40.81857393766264" lon="9.54335585352537"><ele>101.8</ele><time>2026-04-30T13:08:49.99Z</time></trkpt><trkpt lat="40.81860367001869" lon="9.543227192386153"><ele>98.6</ele><time>2026-04-30T13:08:50.99Z</time></trkpt><trkpt lat="40.81863416288322" lon="9.543090828226353"><ele>95.4</ele><time>2026-04-30T13:08:51.99Z</time></trkpt><trkpt lat="40.81866687884315" lon="9.542944533183649"><ele>92.2</ele><time>2026-04-30T13:08:52.99Z</time></trkpt><trkpt lat="40.81871714484607" lon="9.542807962388887"><ele>89.0</ele><time>2026-04-30T13:08:53.99Z</time></trkpt><trkpt lat="40.818786837649505" lon="9.542682924763614"><ele>89.0</ele><time>2026-04-30T13:08:54.99Z</time></trkpt><trkpt lat="40.818850256382824" lon="9.54255055370637"><ele>89.0</ele><time>2026-04-30T13:08:55.99Z</time></trkpt><trkpt lat="40.81892423206985" lon="9.542419953163119"><ele>89.0</ele><time>2026-04-30T13:08:56.99Z</time></trkpt><trkpt lat="40.818994337612324" lon="9.542272404053474"><ele>89.0</ele><time>2026-04-30T13:08:57.99Z</time></trkpt><trkpt lat="40.819060959829024" lon="9.542135084677291"><ele>88.5</ele><time>2026-04-30T13:08:58.99Z</time></trkpt><trkpt lat="40.81912806478242" lon="9.541988917505714"><ele>88.0</ele><time>2026-04-30T13:08:59.99Z</time></trkpt><trkpt lat="40.81919093226303" lon="9.541837003134487"><ele>87.5</ele><time>2026-04-30T13:09:00.99Z</time></trkpt><trkpt lat="40.81925902546737" lon="9.541675378217471"><ele>87.0</ele><time>2026-04-30T13:09:01.99Z</time></trkpt><trkpt lat="40.81932941874927" lon="9.541516175461101"><ele>84.5</ele><time>2026-04-30T13:09:02.99Z</time></trkpt><trkpt lat="40.8194013405193" lon="9.541357188732972"><ele>82.0</ele><time>2026-04-30T13:09:03.99Z</time></trkpt><trkpt lat="40.819473297312044" lon="9.541198404050263"><ele>79.5</ele><time>2026-04-30T13:09:04.99Z</time></trkpt><trkpt lat="40.81954187161805" lon="9.541038165651766"><ele>77.0</ele><time>2026-04-30T13:09:05.99Z</time></trkpt><trkpt lat="40.81960780254517" lon="9.540877891053247"><ele>76.75</ele><time>2026-04-30T13:09:06.99Z</time></trkpt><trkpt lat="40.81967114326042" lon="9.540714619090382"><ele>76.5</ele><time>2026-04-30T13:09:07.99Z</time></trkpt><trkpt lat="40.81973144029656" lon="9.540548352656902"><ele>76.25</ele><time>2026-04-30T13:09:08.99Z</time></trkpt><trkpt lat="40.819789690533426" lon="9.540388072150586"><ele>76.0</ele><time>2026-04-30T13:09:09.99Z</time></trkpt><trkpt lat="40.81984235267829" lon="9.540229589987387"><ele>75.0</ele><time>2026-04-30T13:09:10.99Z</time></trkpt><trkpt lat="40.819881359981174" lon="9.540063783516834"><ele>74.0</ele><time>2026-04-30T13:09:11.99Z</time></trkpt><trkpt lat="40.81992560335751" lon="9.539927606315814"><ele>73.0</ele><time>2026-04-30T13:09:12.99Z</time></trkpt><trkpt lat="40.819956415644945" lon="9.539817993052772"><ele>72.0</ele><time>2026-04-30T13:09:13.99Z</time></trkpt><trkpt lat="40.819994827612874" lon="9.539719715548577"><ele>71.0</ele><time>2026-04-30T13:09:14.99Z</time></trkpt><trkpt lat="40.82001978231702" lon="9.539633800814523"><ele>70.2</ele><time>2026-04-30T13:09:15.99Z</time></trkpt><trkpt lat="40.82004490065722" lon="9.539509071458008"><ele>69.39999999999999</ele><time>2026-04-30T13:09:16.99Z</time></trkpt><trkpt lat="40.82005196136285" lon="9.53936617396074"><ele>68.6</ele><time>2026-04-30T13:09:17.99Z</time></trkpt><trkpt lat="40.82008350880249" lon="9.53921067348911"><ele>67.8</ele><time>2026-04-30T13:09:18.99Z</time></trkpt><trkpt lat="40.820134002590656" lon="9.539084177264348"><ele>67.0</ele><time>2026-04-30T13:09:19.99Z</time></trkpt><trkpt lat="40.820152338653955" lon="9.538947437224673"><ele>66.0</ele><time>2026-04-30T13:09:20.99Z</time></trkpt><trkpt lat="40.820150825136466" lon="9.538810865850058"><ele>65.0</ele><time>2026-04-30T13:09:21.99Z</time></trkpt><trkpt lat="40.82012866953802" lon="9.538666849454316"><ele>64.0</ele><time>2026-04-30T13:09:22.99Z</time></trkpt><trkpt lat="40.820093849888636" lon="9.538518474331992"><ele>63.0</ele><time>2026-04-30T13:09:23.99Z</time></trkpt><trkpt lat="40.82005259982157" lon="9.538349553488606"><ele>63.0</ele><time>2026-04-30T13:09:24.99Z</time></trkpt><trkpt lat="40.82002018891679" lon="9.53816710704677"><ele>63.0</ele><time>2026-04-30T13:09:25.99Z</time></trkpt><trkpt lat="40.81998936016852" lon="9.538008682169323"><ele>63.0</ele><time>2026-04-30T13:09:26.99Z</time></trkpt><trkpt lat="40.81994827474918" lon="9.537837694387258"><ele>63.0</ele><time>2026-04-30T13:09:27.99Z</time></trkpt><trkpt lat="40.81987543734869" lon="9.537683390870784"><ele>62.0</ele><time>2026-04-30T13:09:28.99Z</time></trkpt><trkpt lat="40.819804905615705" lon="9.537546276992934"><ele>61.0</ele><time>2026-04-30T13:09:29.99Z</time></trkpt><trkpt lat="40.81972646392458" lon="9.537398899093638"><ele>60.0</ele><time>2026-04-30T13:09:30.99Z</time></trkpt><trkpt lat="40.81965213058433" lon="9.537255314475269"><ele>59.0</ele><time>2026-04-30T13:09:31.99Z</time></trkpt><trkpt lat="40.8195624082489" lon="9.537119297346422"><ele>58.5</ele><time>2026-04-30T13:09:32.99Z</time></trkpt><trkpt lat="40.81949207837226" lon="9.53696365607493"><ele>58.0</ele><time>2026-04-30T13:09:33.99Z</time></trkpt><trkpt lat="40.81940728413048" lon="9.536812907649015"><ele>57.5</ele><time>2026-04-30T13:09:34.99Z</time></trkpt><trkpt lat="40.81930930181702" lon="9.53666439933321"><ele>57.0</ele><time>2026-04-30T13:09:35.99Z</time></trkpt><trkpt lat="40.81920456743132" lon="9.536519664672262"><ele>56.66666666666667</ele><time>2026-04-30T13:09:36.99Z</time></trkpt><trkpt lat="40.81909772392343" lon="9.536370576755616"><ele>56.333333333333336</ele><time>2026-04-30T13:09:37.99Z</time></trkpt><trkpt lat="40.81898420113167" lon="9.536229956200742"><ele>56.0</ele><time>2026-04-30T13:09:38.99Z</time></trkpt><trkpt lat="40.81887789226019" lon="9.53609208298984"><ele>56.0</ele><time>2026-04-30T13:09:39.991Z</time></trkpt><trkpt lat="40.81877766958069" lon="9.535965998244926"><ele>56.0</ele><time>2026-04-30T13:09:40.991Z</time></trkpt><trkpt lat="40.81868201254848" lon="9.535836739009243"><ele>56.0</ele><time>2026-04-30T13:09:41.991Z</time></trkpt><trkpt lat="40.81858980272276" lon="9.535703288829863"><ele>56.0</ele><time>2026-04-30T13:09:42.991Z</time></trkpt><trkpt lat="40.8184945945651" lon="9.535569454459296"><ele>56.25</ele><time>2026-04-30T13:09:43.991Z</time></trkpt><trkpt lat="40.818401601823155" lon="9.535433680530131"><ele>56.5</ele><time>2026-04-30T13:09:44.991Z</time></trkpt><trkpt lat="40.81831719219861" lon="9.535307605622533"><ele>56.75</ele><time>2026-04-30T13:09:45.991Z</time></trkpt><trkpt lat="40.8182335815053" lon="9.535176449767178"><ele>57.0</ele><time>2026-04-30T13:09:46.991Z</time></trkpt><trkpt lat="40.818152644371516" lon="9.535035861922568"><ele>57.0</ele><time>2026-04-30T13:09:47.991Z</time></trkpt><trkpt lat="40.81807575548328" lon="9.534894625865062"><ele>57.0</ele><time>2026-04-30T13:09:48.991Z</time></trkpt><trkpt lat="40.8180082901405" lon="9.534731572093582"><ele>57.0</ele><time>2026-04-30T13:09:49.991Z</time></trkpt><trkpt lat="40.81794832039622" lon="9.534558382046693"><ele>57.0</ele><time>2026-04-30T13:09:50.991Z</time></trkpt><trkpt lat="40.81788757795856" lon="9.53437519057327"><ele>55.33333333333333</ele><time>2026-04-30T13:09:51.991Z</time></trkpt><trkpt lat="40.817824955062804" lon="9.534187650206926"><ele>53.666666666666664</ele><time>2026-04-30T13:09:52.991Z</time></trkpt><trkpt lat="40.817757094857555" lon="9.533989420691208"><ele>52.0</ele><time>2026-04-30T13:09:53.991Z</time></trkpt><trkpt lat="40.817689425026025" lon="9.53379731328506"><ele>52.0</ele><time>2026-04-30T13:09:54.991Z</time></trkpt><trkpt lat="40.81761904211491" lon="9.53362711380003"><ele>52.0</ele><time>2026-04-30T13:09:55.991Z</time></trkpt><trkpt lat="40.817545276207156" lon="9.533459332188903"><ele>52.0</ele><time>2026-04-30T13:09:56.991Z</time></trkpt><trkpt lat="40.81748818312782" lon="9.533282228140095"><ele>52.0</ele><time>2026-04-30T13:09:57.991Z</time></trkpt><trkpt lat="40.81743898037788" lon="9.5331191848398"><ele>52.0</ele><time>2026-04-30T13:09:58.991Z</time></trkpt><trkpt lat="40.817398071096534" lon="9.532981798880932"><ele>52.0</ele><time>2026-04-30T13:09:59.991Z</time></trkpt><trkpt lat="40.81737089529341" lon="9.532888376889314"><ele>52.0</ele><time>2026-04-30T13:10:00.991Z</time></trkpt><trkpt lat="40.81739628378075" lon="9.53275204452562"><ele>52.0</ele><time>2026-04-30T13:10:02.991Z</time></trkpt><trkpt lat="40.81745537881808" lon="9.53269590787129"><ele>52.0</ele><time>2026-04-30T13:10:03.991Z</time></trkpt><trkpt lat="40.81753388558687" lon="9.532659809661043"><ele>52.0</ele><time>2026-04-30T13:10:04.991Z</time></trkpt><trkpt lat="40.81763303718512" lon="9.532622206039349"><ele>52.0</ele><time>2026-04-30T13:10:05.991Z</time></trkpt><trkpt lat="40.81774241173477" lon="9.532570429897184"><ele>52.0</ele><time>2026-04-30T13:10:06.991Z</time></trkpt><trkpt lat="40.81785481591718" lon="9.532484644878197"><ele>52.0</ele><time>2026-04-30T13:10:07.991Z</time></trkpt><trkpt lat="40.81797804496485" lon="9.532395401061196"><ele>51.75</ele><time>2026-04-30T13:10:08.991Z</time></trkpt><trkpt lat="40.818110683481244" lon="9.53230057268915"><ele>51.5</ele><time>2026-04-30T13:10:09.991Z</time></trkpt><trkpt lat="40.81823955182891" lon="9.532201273384556"><ele>51.25</ele><time>2026-04-30T13:10:10.991Z</time></trkpt><trkpt lat="40.818358898480966" lon="9.532104306622845"><ele>51.0</ele><time>2026-04-30T13:10:11.991Z</time></trkpt><trkpt lat="40.818470093234744" lon="9.53200852334451"><ele>51.0</ele><time>2026-04-30T13:10:12.991Z</time></trkpt><trkpt lat="40.81856397073514" lon="9.531914914180147"><ele>51.0</ele><time>2026-04-30T13:10:13.991Z</time></trkpt><trkpt lat="40.818634093678526" lon="9.531812784696806"><ele>51.0</ele><time>2026-04-30T13:10:14.991Z</time></trkpt><trkpt lat="40.818691903346576" lon="9.531689679182746"><ele>51.0</ele><time>2026-04-30T13:10:15.991Z</time></trkpt><trkpt lat="40.818743469348256" lon="9.531539028859253"><ele>51.0</ele><time>2026-04-30T13:10:16.991Z</time></trkpt><trkpt lat="40.818792903188864" lon="9.531371589670888"><ele>51.0</ele><time>2026-04-30T13:10:17.991Z</time></trkpt><trkpt lat="40.818846962197185" lon="9.531192067527028"><ele>51.0</ele><time>2026-04-30T13:10:18.991Z</time></trkpt><trkpt lat="40.81890015945269" lon="9.531018890846143"><ele>51.0</ele><time>2026-04-30T13:10:19.991Z</time></trkpt><trkpt lat="40.81894841657828" lon="9.530875022283132"><ele>51.333333333333336</ele><time>2026-04-30T13:10:20.991Z</time></trkpt><trkpt lat="40.818983498317145" lon="9.530763535869756"><ele>51.66666666666667</ele><time>2026-04-30T13:10:21.991Z</time></trkpt><trkpt lat="40.81900143689316" lon="9.530660714909587"><ele>52.0</ele><time>2026-04-30T13:10:22.991Z</time></trkpt><trkpt lat="40.81898973265589" lon="9.530547571555264"><ele>52.333333333333336</ele><time>2026-04-30T13:10:23.991Z</time></trkpt><trkpt lat="40.81895995190275" lon="9.530425927114113"><ele>52.66666666666667</ele><time>2026-04-30T13:10:24.991Z</time></trkpt><trkpt lat="40.818914617349506" lon="9.530321458362309"><ele>53.0</ele><time>2026-04-30T13:10:25.991Z</time></trkpt><trkpt lat="40.81887168192848" lon="9.530238613433708"><ele>53.0</ele><time>2026-04-30T13:10:26.991Z</time></trkpt><trkpt lat="40.81882311082372" lon="9.530174403996705"><ele>53.0</ele><time>2026-04-30T13:10:27.991Z</time></trkpt><trkpt lat="40.81878276479528" lon="9.530108217098206"><ele>53.0</ele><time>2026-04-30T13:10:28.991Z</time></trkpt><trkpt lat="40.81870474138959" lon="9.529610499124518"><ele>53.00000000000001</ele><time>2026-04-30T13:10:29.991Z</time></trkpt><trkpt lat="40.81866034615373" lon="9.529517254871124"><ele>53.0</ele><time>2026-04-30T13:10:30.991Z</time></trkpt><trkpt lat="40.81861880574088" lon="9.529453567768881"><ele>53.0</ele><time>2026-04-30T13:10:31.991Z</time></trkpt><trkpt lat="40.818572964620415" lon="9.529392597923058"><ele>53.0</ele><time>2026-04-30T13:10:32.991Z</time></trkpt><trkpt lat="40.818519849405625" lon="9.52932283777965"><ele>53.00000000000001</ele><time>2026-04-30T13:10:33.991Z</time></trkpt><trkpt lat="40.818454240609356" lon="9.529243008889752"><ele>53.0</ele><time>2026-04-30T13:10:34.991Z</time></trkpt><trkpt lat="40.81836983276496" lon="9.52915494622961"><ele>53.75</ele><time>2026-04-30T13:10:35.991Z</time></trkpt><trkpt lat="40.81827934617971" lon="9.529050553885055"><ele>54.5</ele><time>2026-04-30T13:10:36.991Z</time></trkpt><trkpt lat="40.81818627404882" lon="9.528935356832235"><ele>55.25</ele><time>2026-04-30T13:10:37.991Z</time></trkpt><trkpt lat="40.81809862525204" lon="9.528786989360947"><ele>56.0</ele><time>2026-04-30T13:10:38.991Z</time></trkpt><trkpt lat="40.81801139944508" lon="9.528632045208639"><ele>56.333333333333336</ele><time>2026-04-30T13:10:39.991Z</time></trkpt><trkpt lat="40.81791644444974" lon="9.52846365500696"><ele>56.66666666666667</ele><time>2026-04-30T13:10:40.991Z</time></trkpt><trkpt lat="40.817821251994" lon="9.528292220032903"><ele>57.0</ele><time>2026-04-30T13:10:41.989Z</time></trkpt><trkpt lat="40.817719323125566" lon="9.528118721138423"><ele>57.0</ele><time>2026-04-30T13:10:42.989Z</time></trkpt><trkpt lat="40.817610833626986" lon="9.527949417253273"><ele>57.0</ele><time>2026-04-30T13:10:43.989Z</time></trkpt><trkpt lat="40.81749562580967" lon="9.527775557320341"><ele>57.0</ele><time>2026-04-30T13:10:44.989Z</time></trkpt><trkpt lat="40.81737133010096" lon="9.52759724332083"><ele>57.0</ele><time>2026-04-30T13:10:45.989Z</time></trkpt><trkpt lat="40.81724435923411" lon="9.527411030547139"><ele>57.0</ele><time>2026-04-30T13:10:46.989Z</time></trkpt><trkpt lat="40.81711496039782" lon="9.527227495530568"><ele>57.0</ele><time>2026-04-30T13:10:47.989Z</time></trkpt><trkpt lat="40.816992713960325" lon="9.527054897161973"><ele>56.66666666666667</ele><time>2026-04-30T13:10:48.989Z</time></trkpt><trkpt lat="40.81688061331188" lon="9.526895250468502"><ele>56.333333333333336</ele><time>2026-04-30T13:10:49.989Z</time></trkpt><trkpt lat="40.816778795628586" lon="9.526740584276506"><ele>56.0</ele><time>2026-04-30T13:10:50.989Z</time></trkpt><trkpt lat="40.81669000289558" lon="9.5265935831951"><ele>56.0</ele><time>2026-04-30T13:10:51.989Z</time></trkpt><trkpt lat="40.816635155679535" lon="9.526449410922384"><ele>56.0</ele><time>2026-04-30T13:10:52.989Z</time></trkpt><trkpt lat="40.81659717460352" lon="9.526305688053268"><ele>56.0</ele><time>2026-04-30T13:10:53.989Z</time></trkpt><trkpt lat="40.81658535833673" lon="9.52613234733184"><ele>56.0</ele><time>2026-04-30T13:10:54.989Z</time></trkpt><trkpt lat="40.816558221074104" lon="9.52595796353417"><ele>55.75</ele><time>2026-04-30T13:10:55.989Z</time></trkpt><trkpt lat="40.816518283988756" lon="9.525788274885398"><ele>55.5</ele><time>2026-04-30T13:10:56.989Z</time></trkpt><trkpt lat="40.816455258172766" lon="9.525625472622098"><ele>55.25</ele><time>2026-04-30T13:10:57.989Z</time></trkpt><trkpt lat="40.816372985163376" lon="9.525468436561182"><ele>55.0</ele><time>2026-04-30T13:10:58.989Z</time></trkpt><trkpt lat="40.81628058642715" lon="9.525314184118574"><ele>55.0</ele><time>2026-04-30T13:10:59.989Z</time></trkpt><trkpt lat="40.81618352572584" lon="9.525153424567117"><ele>55.0</ele><time>2026-04-30T13:11:00.989Z</time></trkpt><trkpt lat="40.81608484979809" lon="9.52497123860055"><ele>55.0</ele><time>2026-04-30T13:11:01.989Z</time></trkpt><trkpt lat="40.81597960190535" lon="9.524783857824046"><ele>55.666666666666664</ele><time>2026-04-30T13:11:02.989Z</time></trkpt><trkpt lat="40.815889011555655" lon="9.524601749503615"><ele>56.33333333333333</ele><time>2026-04-30T13:11:03.989Z</time></trkpt><trkpt lat="40.81579746928963" lon="9.524434618929988"><ele>57.0</ele><time>2026-04-30T13:11:04.989Z</time></trkpt><trkpt lat="40.81570100723328" lon="9.524276514121023"><ele>57.5</ele><time>2026-04-30T13:11:05.989Z</time></trkpt><trkpt lat="40.815597276076474" lon="9.524134639191262"><ele>58.0</ele><time>2026-04-30T13:11:06.989Z</time></trkpt><trkpt lat="40.815482877307026" lon="9.524024281898363"><ele>58.5</ele><time>2026-04-30T13:11:07.989Z</time></trkpt><trkpt lat="40.815361661278054" lon="9.523926440369747"><ele>59.0</ele><time>2026-04-30T13:11:08.989Z</time></trkpt><trkpt lat="40.81522187003045" lon="9.523820611330686"><ele>59.66666666666667</ele><time>2026-04-30T13:11:09.989Z</time></trkpt><trkpt lat="40.81506997273032" lon="9.523719619900563"><ele>60.33333333333333</ele><time>2026-04-30T13:11:10.989Z</time></trkpt><trkpt lat="40.81491078965794" lon="9.52360319312981"><ele>61.0</ele><time>2026-04-30T13:11:11.989Z</time></trkpt><trkpt lat="40.81475154248737" lon="9.523492256989302"><ele>61.0</ele><time>2026-04-30T13:11:12.989Z</time></trkpt><trkpt lat="40.81459169255607" lon="9.52337163323698"><ele>61.0</ele><time>2026-04-30T13:11:13.989Z</time></trkpt><trkpt lat="40.814432894670574" lon="9.523254303600556"><ele>61.0</ele><time>2026-04-30T13:11:14.989Z</time></trkpt><trkpt lat="40.814267324961456" lon="9.52313858303401"><ele>61.0</ele><time>2026-04-30T13:11:15.989Z</time></trkpt><trkpt lat="40.81410577981968" lon="9.523024490346975"><ele>61.0</ele><time>2026-04-30T13:11:16.989Z</time></trkpt><trkpt lat="40.81394278506761" lon="9.52290421341852"><ele>61.0</ele><time>2026-04-30T13:11:17.989Z</time></trkpt><trkpt lat="40.813781178421934" lon="9.522783288233473"><ele>61.0</ele><time>2026-04-30T13:11:18.989Z</time></trkpt><trkpt lat="40.81362649348503" lon="9.522677026960851"><ele>61.0</ele><time>2026-04-30T13:11:19.989Z</time></trkpt><trkpt lat="40.813456929871144" lon="9.522552658201967"><ele>61.0</ele><time>2026-04-30T13:11:20.989Z</time></trkpt><trkpt lat="40.813295978867664" lon="9.5224357310157"><ele>62.0</ele><time>2026-04-30T13:11:21.989Z</time></trkpt><trkpt lat="40.813133563535686" lon="9.522328265480398"><ele>63.0</ele><time>2026-04-30T13:11:22.989Z</time></trkpt><trkpt lat="40.812986191727084" lon="9.522224478634572"><ele>64.0</ele><time>2026-04-30T13:11:23.989Z</time></trkpt><trkpt lat="40.812842868355276" lon="9.522121394394334"><ele>64.0</ele><time>2026-04-30T13:11:24.989Z</time></trkpt><trkpt lat="40.81271557236359" lon="9.522015879110526"><ele>64.0</ele><time>2026-04-30T13:11:25.989Z</time></trkpt><trkpt lat="40.81259356168838" lon="9.521902786423327"><ele>64.0</ele><time>2026-04-30T13:11:26.989Z</time></trkpt><trkpt lat="40.81247624177409" lon="9.521784738598924"><ele>64.0</ele><time>2026-04-30T13:11:27.989Z</time></trkpt><trkpt lat="40.81236761859122" lon="9.521673564744066"><ele>64.5</ele><time>2026-04-30T13:11:28.989Z</time></trkpt><trkpt lat="40.81225344633353" lon="9.52155387299905"><ele>65.0</ele><time>2026-04-30T13:11:29.989Z</time></trkpt><trkpt lat="40.812137703240474" lon="9.521432960489642"><ele>65.5</ele><time>2026-04-30T13:11:30.989Z</time></trkpt><trkpt lat="40.81201990522243" lon="9.52130206138846"><ele>66.0</ele><time>2026-04-30T13:11:31.989Z</time></trkpt><trkpt lat="40.8118993665286" lon="9.521174767073994"><ele>67.0</ele><time>2026-04-30T13:11:32.989Z</time></trkpt><trkpt lat="40.81177003070168" lon="9.521050773865676"><ele>68.0</ele><time>2026-04-30T13:11:33.989Z</time></trkpt><trkpt lat="40.81163860486528" lon="9.520926525641324"><ele>69.0</ele><time>2026-04-30T13:11:34.989Z</time></trkpt><trkpt lat="40.81150612608188" lon="9.520808294129669"><ele>69.0</ele><time>2026-04-30T13:11:35.989Z</time></trkpt><trkpt lat="40.81137581731831" lon="9.520676156065319"><ele>69.0</ele><time>2026-04-30T13:11:36.989Z</time></trkpt><trkpt lat="40.81125882025504" lon="9.520530618715066"><ele>69.0</ele><time>2026-04-30T13:11:37.989Z</time></trkpt><trkpt lat="40.81114993262112" lon="9.520384052182147"><ele>69.0</ele><time>2026-04-30T13:11:38.989Z</time></trkpt><trkpt lat="40.81103893845321" lon="9.520214960066353"><ele>69.0</ele><time>2026-04-30T13:11:39.989Z</time></trkpt><trkpt lat="40.81092982645103" lon="9.520049969757148"><ele>69.0</ele><time>2026-04-30T13:11:40.989Z</time></trkpt><trkpt lat="40.8108178702837" lon="9.519887002366904"><ele>69.33333333333333</ele><time>2026-04-30T13:11:41.989Z</time></trkpt><trkpt lat="40.81069962018772" lon="9.519727847049086"><ele>69.66666666666666</ele><time>2026-04-30T13:11:42.989Z</time></trkpt><trkpt lat="40.81058606079821" lon="9.519584399952615"><ele>70.0</ele><time>2026-04-30T13:11:43.989Z</time></trkpt><trkpt lat="40.81048803746789" lon="9.519467935281178"><ele>70.25</ele><time>2026-04-30T13:11:44.989Z</time></trkpt><trkpt lat="40.8103945699587" lon="9.5193720297132"><ele>70.5</ele><time>2026-04-30T13:11:45.99Z</time></trkpt><trkpt lat="40.81030397953512" lon="9.519304043648921"><ele>70.75</ele><time>2026-04-30T13:11:46.99Z</time></trkpt><trkpt lat="40.810200393198826" lon="9.51925985800956"><ele>71.0</ele><time>2026-04-30T13:11:47.99Z</time></trkpt><trkpt lat="40.81008202534685" lon="9.519228052278123"><ele>72.25</ele><time>2026-04-30T13:11:48.99Z</time></trkpt><trkpt lat="40.809946792428455" lon="9.51920282776249"><ele>73.5</ele><time>2026-04-30T13:11:49.99Z</time></trkpt><trkpt lat="40.809803782701245" lon="9.519172089144929"><ele>74.75</ele><time>2026-04-30T13:11:50.99Z</time></trkpt><trkpt lat="40.80966566552653" lon="9.519133489910029"><ele>76.0</ele><time>2026-04-30T13:11:51.99Z</time></trkpt><trkpt lat="40.8095307519011" lon="9.51908404060298"><ele>76.0</ele><time>2026-04-30T13:11:52.99Z</time></trkpt><trkpt lat="40.809407843551156" lon="9.5190251611191"><ele>76.0</ele><time>2026-04-30T13:11:53.99Z</time></trkpt><trkpt lat="40.80929427300465" lon="9.51897603912557"><ele>76.0</ele><time>2026-04-30T13:11:54.99Z</time></trkpt><trkpt lat="40.80920842092996" lon="9.518923292067946"><ele>76.0</ele><time>2026-04-30T13:11:55.99Z</time></trkpt><trkpt lat="40.80914637319288" lon="9.518854297789435"><ele>76.0</ele><time>2026-04-30T13:11:56.99Z</time></trkpt><trkpt lat="40.8090960531077" lon="9.518768581363224"><ele>76.6</ele><time>2026-04-30T13:11:57.99Z</time></trkpt><trkpt lat="40.809060192202836" lon="9.518656735515593"><ele>77.19999999999999</ele><time>2026-04-30T13:11:58.99Z</time></trkpt><trkpt lat="40.80903297591122" lon="9.518535954422973"><ele>77.80000000000001</ele><time>2026-04-30T13:11:59.99Z</time></trkpt><trkpt lat="40.80900551208022" lon="9.5183941419888"><ele>78.4</ele><time>2026-04-30T13:12:00.99Z</time></trkpt><trkpt lat="40.80897235643913" lon="9.518240402626676"><ele>79.0</ele><time>2026-04-30T13:12:01.99Z</time></trkpt><trkpt lat="40.80892236771254" lon="9.518071017343813"><ele>79.33333333333333</ele><time>2026-04-30T13:12:02.99Z</time></trkpt><trkpt lat="40.80886685476586" lon="9.517883281646432"><ele>79.66666666666667</ele><time>2026-04-30T13:12:03.99Z</time></trkpt><trkpt lat="40.808801801646574" lon="9.517680877368967"><ele>80.0</ele><time>2026-04-30T13:12:04.99Z</time></trkpt><trkpt lat="40.808740335286664" lon="9.517473633339014"><ele>80.0</ele><time>2026-04-30T13:12:05.99Z</time></trkpt><trkpt lat="40.8086829192456" lon="9.517269097111344"><ele>80.0</ele><time>2026-04-30T13:12:06.99Z</time></trkpt><trkpt lat="40.808633699230604" lon="9.517076533147025"><ele>80.0</ele><time>2026-04-30T13:12:07.99Z</time></trkpt><trkpt lat="40.80858844653527" lon="9.516903401398947"><ele>80.25</ele><time>2026-04-30T13:12:08.99Z</time></trkpt><trkpt lat="40.80854919789014" lon="9.516736719586355"><ele>80.5</ele><time>2026-04-30T13:12:09.99Z</time></trkpt><trkpt lat="40.80850362926298" lon="9.516576435280227"><ele>80.75</ele><time>2026-04-30T13:12:10.99Z</time></trkpt><trkpt lat="40.808442382853336" lon="9.516424937462807"><ele>81.0</ele><time>2026-04-30T13:12:11.99Z</time></trkpt><trkpt lat="40.808354519723764" lon="9.516290018014379"><ele>81.75</ele><time>2026-04-30T13:12:12.99Z</time></trkpt><trkpt lat="40.80826061034572" lon="9.516150360430514"><ele>82.5</ele><time>2026-04-30T13:12:13.99Z</time></trkpt><trkpt lat="40.80816546244184" lon="9.515992484388173"><ele>83.25</ele><time>2026-04-30T13:12:14.99Z</time></trkpt><trkpt lat="40.80807875188103" lon="9.515853210557056"><ele>84.0</ele><time>2026-04-30T13:12:15.99Z</time></trkpt><trkpt lat="40.8080024660406" lon="9.515723021585519"><ele>84.0</ele><time>2026-04-30T13:12:16.99Z</time></trkpt><trkpt lat="40.80792670628836" lon="9.515585891714576"><ele>84.0</ele><time>2026-04-30T13:12:17.99Z</time></trkpt><trkpt lat="40.80786913929099" lon="9.51547608574475"><ele>84.0</ele><time>2026-04-30T13:12:18.99Z</time></trkpt><trkpt lat="40.80782433649954" lon="9.515375726340228"><ele>84.0</ele><time>2026-04-30T13:12:19.99Z</time></trkpt><trkpt lat="40.807798035567416" lon="9.515271974786561"><ele>84.0</ele><time>2026-04-30T13:12:21.99Z</time></trkpt><trkpt lat="40.80773826721357" lon="9.515225212040901"><ele>84.6</ele><time>2026-04-30T13:12:31.99Z</time></trkpt><trkpt lat="40.80761290711852" lon="9.5152674002338"><ele>85.2</ele><time>2026-04-30T13:12:33.99Z</time></trkpt><trkpt lat="40.807523924462494" lon="9.515304350160317"><ele>85.8</ele><time>2026-04-30T13:12:34.99Z</time></trkpt><trkpt lat="40.80743060087594" lon="9.515340846899582"><ele>86.39999999999999</ele><time>2026-04-30T13:12:35.99Z</time></trkpt><trkpt lat="40.80732670038649" lon="9.515369703420813"><ele>87.0</ele><time>2026-04-30T13:12:36.99Z</time></trkpt><trkpt lat="40.8072155653329" lon="9.515395151765258"><ele>87.0</ele><time>2026-04-30T13:12:37.99Z</time></trkpt><trkpt lat="40.80709927156519" lon="9.515408294073039"><ele>87.0</ele><time>2026-04-30T13:12:38.99Z</time></trkpt><trkpt lat="40.80696969101416" lon="9.515410504650072"><ele>87.0</ele><time>2026-04-30T13:12:39.99Z</time></trkpt><trkpt lat="40.80683558254879" lon="9.515396346160932"><ele>87.0</ele><time>2026-04-30T13:12:40.99Z</time></trkpt><trkpt lat="40.80669614190011" lon="9.515377655422695"><ele>87.75</ele><time>2026-04-30T13:12:41.99Z</time></trkpt><trkpt lat="40.806552620755404" lon="9.515357313636052"><ele>88.5</ele><time>2026-04-30T13:12:42.99Z</time></trkpt><trkpt lat="40.80640836705978" lon="9.515332871392832"><ele>89.25</ele><time>2026-04-30T13:12:43.99Z</time></trkpt><trkpt lat="40.806261329774074" lon="9.51531456071736"><ele>90.0</ele><time>2026-04-30T13:12:44.99Z</time></trkpt><trkpt lat="40.806118279978854" lon="9.515285657894278"><ele>91.5</ele><time>2026-04-30T13:12:45.99Z</time></trkpt><trkpt lat="40.80598297773547" lon="9.51525214749371"><ele>93.0</ele><time>2026-04-30T13:12:46.99Z</time></trkpt><trkpt lat="40.80584738200923" lon="9.515198747618035"><ele>94.5</ele><time>2026-04-30T13:12:47.988Z</time></trkpt><trkpt lat="40.805717708564956" lon="9.515133274242409"><ele>96.0</ele><time>2026-04-30T13:12:48.988Z</time></trkpt><trkpt lat="40.80557973677464" lon="9.515055813580116"><ele>96.0</ele><time>2026-04-30T13:12:49.988Z</time></trkpt><trkpt lat="40.80543610142638" lon="9.514962435569366"><ele>96.0</ele><time>2026-04-30T13:12:50.988Z</time></trkpt><trkpt lat="40.80528853823975" lon="9.514861972594955"><ele>96.0</ele><time>2026-04-30T13:12:51.988Z</time></trkpt><trkpt lat="40.805135462658015" lon="9.51476110275267"><ele>97.66666666666666</ele><time>2026-04-30T13:12:52.988Z</time></trkpt><trkpt lat="40.80498350088041" lon="9.514665043749648"><ele>99.33333333333333</ele><time>2026-04-30T13:12:53.989Z</time></trkpt><trkpt lat="40.80482997059815" lon="9.514571445863304"><ele>101.0</ele><time>2026-04-30T13:12:54.988Z</time></trkpt><trkpt lat="40.8046829811988" lon="9.51448719143995"><ele>101.33333333333333</ele><time>2026-04-30T13:12:55.988Z</time></trkpt><trkpt lat="40.804534785795916" lon="9.51441548956827"><ele>101.66666666666666</ele><time>2026-04-30T13:12:56.988Z</time></trkpt><trkpt lat="40.804383048755454" lon="9.514363201685356"><ele>102.0</ele><time>2026-04-30T13:12:57.988Z</time></trkpt><trkpt lat="40.80422678444952" lon="9.514321076208006"><ele>103.33333333333334</ele><time>2026-04-30T13:12:58.988Z</time></trkpt><trkpt lat="40.80406698123751" lon="9.514278302994505"><ele>104.66666666666667</ele><time>2026-04-30T13:12:59.988Z</time></trkpt><trkpt lat="40.80389555586331" lon="9.514257713538068"><ele>106.0</ele><time>2026-04-30T13:13:00.988Z</time></trkpt><trkpt lat="40.80372180365252" lon="9.514267903221318"><ele>106.0</ele><time>2026-04-30T13:13:01.988Z</time></trkpt><trkpt lat="40.80356650284801" lon="9.51428467836547"><ele>106.0</ele><time>2026-04-30T13:13:02.988Z</time></trkpt><trkpt lat="40.80340445689688" lon="9.514292658291348"><ele>106.0</ele><time>2026-04-30T13:13:03.988Z</time></trkpt><trkpt lat="40.803243163551834" lon="9.514302076793616"><ele>108.66666666666667</ele><time>2026-04-30T13:13:04.988Z</time></trkpt><trkpt lat="40.80308645448064" lon="9.514294305973065"><ele>111.33333333333334</ele><time>2026-04-30T13:13:05.988Z</time></trkpt><trkpt lat="40.80292347987073" lon="9.514300895646103"><ele>114.0</ele><time>2026-04-30T13:13:06.988Z</time></trkpt><trkpt lat="40.80277004899616" lon="9.514322093014481"><ele>117.33333333333334</ele><time>2026-04-30T13:13:07.988Z</time></trkpt><trkpt lat="40.802620623297685" lon="9.514362636976566"><ele>120.66666666666667</ele><time>2026-04-30T13:13:08.988Z</time></trkpt><trkpt lat="40.80246513109525" lon="9.514429276424487"><ele>124.0</ele><time>2026-04-30T13:13:09.988Z</time></trkpt><trkpt lat="40.80230487677604" lon="9.514510313001399"><ele>123.0</ele><time>2026-04-30T13:13:10.988Z</time></trkpt><trkpt lat="40.80214359248385" lon="9.514610324097491"><ele>122.0</ele><time>2026-04-30T13:13:11.988Z</time></trkpt><trkpt lat="40.80198105149631" lon="9.514712176464228"><ele>121.0</ele><time>2026-04-30T13:13:12.988Z</time></trkpt><trkpt lat="40.80181348094169" lon="9.51481684674018"><ele>125.0</ele><time>2026-04-30T13:13:13.988Z</time></trkpt><trkpt lat="40.801646394650966" lon="9.514921483136622"><ele>129.0</ele><time>2026-04-30T13:13:14.988Z</time></trkpt><trkpt lat="40.801478340656" lon="9.515027352871014"><ele>133.0</ele><time>2026-04-30T13:13:15.988Z</time></trkpt><trkpt lat="40.80131204470024" lon="9.515135199864229"><ele>133.0</ele><time>2026-04-30T13:13:16.988Z</time></trkpt><trkpt lat="40.801144831789465" lon="9.515242758502726"><ele>133.0</ele><time>2026-04-30T13:13:17.988Z</time></trkpt><trkpt lat="40.80097395643178" lon="9.515352841518952"><ele>133.0</ele><time>2026-04-30T13:13:18.988Z</time></trkpt><trkpt lat="40.80080823517528" lon="9.515458114144598"><ele>133.0</ele><time>2026-04-30T13:13:19.988Z</time></trkpt><trkpt lat="40.80064084056857" lon="9.515566426542353"><ele>133.0</ele><time>2026-04-30T13:13:20.988Z</time></trkpt><trkpt lat="40.80047056077586" lon="9.515673075837414"><ele>133.0</ele><time>2026-04-30T13:13:21.988Z</time></trkpt><trkpt lat="40.800292289447626" lon="9.515778440353852"><ele>137.66666666666669</ele><time>2026-04-30T13:13:22.988Z</time></trkpt><trkpt lat="40.80011815333905" lon="9.515886013696818"><ele>142.33333333333334</ele><time>2026-04-30T13:13:23.988Z</time></trkpt><trkpt lat="40.79994876672736" lon="9.515998757412587"><ele>147.0</ele><time>2026-04-30T13:13:24.988Z</time></trkpt><trkpt lat="40.799785683124" lon="9.516106865252112"><ele>147.0</ele><time>2026-04-30T13:13:25.988Z</time></trkpt><trkpt lat="40.799625489849745" lon="9.516208053315847"><ele>147.0</ele><time>2026-04-30T13:13:26.988Z</time></trkpt><trkpt lat="40.799464620934664" lon="9.516305444593765"><ele>147.0</ele><time>2026-04-30T13:13:27.988Z</time></trkpt><trkpt lat="40.799315333332586" lon="9.516392972219101"><ele>148.33333333333334</ele><time>2026-04-30T13:13:28.988Z</time></trkpt><trkpt lat="40.799173106370446" lon="9.51645720857677"><ele>149.66666666666669</ele><time>2026-04-30T13:13:29.988Z</time></trkpt><trkpt lat="40.79902807854984" lon="9.516504915315409"><ele>151.0</ele><time>2026-04-30T13:13:30.988Z</time></trkpt><trkpt lat="40.7988779312216" lon="9.516536060559348"><ele>151.0</ele><time>2026-04-30T13:13:31.988Z</time></trkpt><trkpt lat="40.7987226803432" lon="9.516554746033552"><ele>151.0</ele><time>2026-04-30T13:13:32.988Z</time></trkpt><trkpt lat="40.798565418024815" lon="9.516556722606886"><ele>151.0</ele><time>2026-04-30T13:13:33.988Z</time></trkpt><trkpt lat="40.79840296541756" lon="9.516559168442207"><ele>155.0</ele><time>2026-04-30T13:13:34.988Z</time></trkpt><trkpt lat="40.79822536797334" lon="9.516552662637999"><ele>159.0</ele><time>2026-04-30T13:13:35.988Z</time></trkpt><trkpt lat="40.79804379856867" lon="9.516547265908066"><ele>163.0</ele><time>2026-04-30T13:13:36.988Z</time></trkpt><trkpt lat="40.797860460833796" lon="9.516536468798238"><ele>163.0</ele><time>2026-04-30T13:13:37.988Z</time></trkpt><trkpt lat="40.79767794294045" lon="9.516530574575036"><ele>163.0</ele><time>2026-04-30T13:13:38.988Z</time></trkpt><trkpt lat="40.79748925775942" lon="9.516522434899102"><ele>163.0</ele><time>2026-04-30T13:13:39.988Z</time></trkpt><trkpt lat="40.797300460549046" lon="9.516512492623514"><ele>165.0</ele><time>2026-04-30T13:13:40.988Z</time></trkpt><trkpt lat="40.79711029274712" lon="9.51650547579567"><ele>167.0</ele><time>2026-04-30T13:13:41.988Z</time></trkpt><trkpt lat="40.79691717329767" lon="9.516495540980028"><ele>169.0</ele><time>2026-04-30T13:13:42.988Z</time></trkpt><trkpt lat="40.79671486469951" lon="9.516490090671283"><ele>170.33333333333334</ele><time>2026-04-30T13:13:43.988Z</time></trkpt><trkpt lat="40.796515742436895" lon="9.516483836044808"><ele>171.66666666666666</ele><time>2026-04-30T13:13:44.988Z</time></trkpt><trkpt lat="40.79631916283773" lon="9.51647944822549"><ele>173.0</ele><time>2026-04-30T13:13:45.988Z</time></trkpt><trkpt lat="40.7961174228586" lon="9.516471264541027"><ele>175.0</ele><time>2026-04-30T13:13:46.989Z</time></trkpt><trkpt lat="40.79591568276889" lon="9.516462872708871"><ele>177.0</ele><time>2026-04-30T13:13:47.989Z</time></trkpt><trkpt lat="40.795712505859846" lon="9.516453132907433"><ele>179.0</ele><time>2026-04-30T13:13:48.989Z</time></trkpt><trkpt lat="40.79550824756465" lon="9.516448717957926"><ele>179.0</ele><time>2026-04-30T13:13:49.989Z</time></trkpt><trkpt lat="40.795303798287605" lon="9.516449508808726"><ele>179.0</ele><time>2026-04-30T13:13:50.989Z</time></trkpt><trkpt lat="40.7950994545405" lon="9.516459799587698"><ele>179.0</ele><time>2026-04-30T13:13:51.989Z</time></trkpt><trkpt lat="40.794896478185315" lon="9.516477084508846"><ele>181.0</ele><time>2026-04-30T13:13:52.989Z</time></trkpt><trkpt lat="40.79469631353502" lon="9.516498995074919"><ele>183.0</ele><time>2026-04-30T13:13:53.989Z</time></trkpt><trkpt lat="40.79449774558962" lon="9.516518950917392"><ele>185.0</ele><time>2026-04-30T13:13:54.989Z</time></trkpt><trkpt lat="40.79429921015975" lon="9.51653933161094"><ele>186.66666666666666</ele><time>2026-04-30T13:13:55.989Z</time></trkpt><trkpt lat="40.794101807830025" lon="9.51655741723139"><ele>188.33333333333334</ele><time>2026-04-30T13:13:56.989Z</time></trkpt><trkpt lat="40.79390802048122" lon="9.5165700720064"><ele>190.0</ele><time>2026-04-30T13:13:57.989Z</time></trkpt><trkpt lat="40.79371418379625" lon="9.516573192990935"><ele>190.0</ele><time>2026-04-30T13:13:58.989Z</time></trkpt><trkpt lat="40.79351924007522" lon="9.516565409669736"><ele>190.0</ele><time>2026-04-30T13:13:59.989Z</time></trkpt><trkpt lat="40.79332003502962" lon="9.516547355726217"><ele>190.0</ele><time>2026-04-30T13:14:00.989Z</time></trkpt><trkpt lat="40.7931181481749" lon="9.516530280035015"><ele>192.66666666666669</ele><time>2026-04-30T13:14:01.989Z</time></trkpt><trkpt lat="40.79291385787408" lon="9.516515392955116"><ele>195.33333333333334</ele><time>2026-04-30T13:14:02.989Z</time></trkpt><trkpt lat="40.79270845409072" lon="9.516498075730357"><ele>198.0</ele><time>2026-04-30T13:14:03.989Z</time></trkpt><trkpt lat="40.792504740882215" lon="9.516483558440223"><ele>198.66666666666669</ele><time>2026-04-30T13:14:04.989Z</time></trkpt><trkpt lat="40.79229964554051" lon="9.516468313331941"><ele>199.33333333333334</ele><time>2026-04-30T13:14:05.989Z</time></trkpt><trkpt lat="40.79209647954001" lon="9.516459242987134"><ele>200.0</ele><time>2026-04-30T13:14:06.989Z</time></trkpt><trkpt lat="40.79189446337641" lon="9.51644707813855"><ele>200.33333333333334</ele><time>2026-04-30T13:14:07.989Z</time></trkpt><trkpt lat="40.791694623647146" lon="9.51644070959966"><ele>200.66666666666669</ele><time>2026-04-30T13:14:08.989Z</time></trkpt><trkpt lat="40.79148945706007" lon="9.51643695228099"><ele>201.0</ele><time>2026-04-30T13:14:09.989Z</time></trkpt><trkpt lat="40.791279958257846" lon="9.51643171388054"><ele>201.0</ele><time>2026-04-30T13:14:10.989Z</time></trkpt><trkpt lat="40.791067626562906" lon="9.516427278917194"><ele>201.0</ele><time>2026-04-30T13:14:11.989Z</time></trkpt><trkpt lat="40.79085535692102" lon="9.516426828813538"><ele>201.0</ele><time>2026-04-30T13:14:12.989Z</time></trkpt><trkpt lat="40.79064896919581" lon="9.516434030909068"><ele>204.66666666666669</ele><time>2026-04-30T13:14:13.989Z</time></trkpt><trkpt lat="40.79044854386106" lon="9.516448847693665"><ele>208.33333333333334</ele><time>2026-04-30T13:14:14.989Z</time></trkpt><trkpt lat="40.79025216779006" lon="9.516474644523896"><ele>212.0</ele><time>2026-04-30T13:14:15.989Z</time></trkpt><trkpt lat="40.790062232291305" lon="9.516510270431352"><ele>216.0</ele><time>2026-04-30T13:14:16.989Z</time></trkpt><trkpt lat="40.789873316129736" lon="9.516548456636526"><ele>220.0</ele><time>2026-04-30T13:14:17.989Z</time></trkpt><trkpt lat="40.78968525218811" lon="9.516587452468755"><ele>224.0</ele><time>2026-04-30T13:14:18.989Z</time></trkpt><trkpt lat="40.789495178473864" lon="9.516626874462354"><ele>228.0</ele><time>2026-04-30T13:14:19.989Z</time></trkpt><trkpt lat="40.78930769079338" lon="9.516669748095806"><ele>232.0</ele><time>2026-04-30T13:14:20.989Z</time></trkpt><trkpt lat="40.789127325356205" lon="9.51671407344611"><ele>236.0</ele><time>2026-04-30T13:14:21.989Z</time></trkpt><trkpt lat="40.788965359393565" lon="9.516755072512968"><ele>236.0</ele><time>2026-04-30T13:14:22.989Z</time></trkpt><trkpt lat="40.788816508145196" lon="9.516787323570368"><ele>236.0</ele><time>2026-04-30T13:14:23.989Z</time></trkpt><trkpt lat="40.78867441042021" lon="9.516818175425257"><ele>236.0</ele><time>2026-04-30T13:14:24.989Z</time></trkpt><trkpt lat="40.78854357529447" lon="9.516849397673555"><ele>236.0</ele><time>2026-04-30T13:14:25.989Z</time></trkpt><trkpt lat="40.7884267176606" lon="9.516870508539844"><ele>239.60000000000002</ele><time>2026-04-30T13:14:26.989Z</time></trkpt><trkpt lat="40.78831491820616" lon="9.516891255666597"><ele>243.20000000000002</ele><time>2026-04-30T13:14:27.989Z</time></trkpt><trkpt lat="40.788207047605525" lon="9.516915127661697"><ele>246.79999999999998</ele><time>2026-04-30T13:14:28.989Z</time></trkpt><trkpt lat="40.7881055641757" lon="9.516935006170518"><ele>250.39999999999998</ele><time>2026-04-30T13:14:29.989Z</time></trkpt><trkpt lat="40.78799934298195" lon="9.516971123121303"><ele>254.0</ele><time>2026-04-30T13:14:30.989Z</time></trkpt><trkpt lat="40.787898974520836" lon="9.516986187065168"><ele>254.0</ele><time>2026-04-30T13:14:31.989Z</time></trkpt><trkpt lat="40.78781295687548" lon="9.517020220042538"><ele>253.99999999999997</ele><time>2026-04-30T13:14:32.989Z</time></trkpt><trkpt lat="40.787737979916955" lon="9.517047130503684"><ele>253.99999999999997</ele><time>2026-04-30T13:14:33.989Z</time></trkpt><trkpt lat="40.78764152771704" lon="9.517080084123327"><ele>254.0</ele><time>2026-04-30T13:14:34.989Z</time></trkpt><trkpt lat="40.78753194371078" lon="9.517110041180914"><ele>254.0</ele><time>2026-04-30T13:14:35.989Z</time></trkpt><trkpt lat="40.78741022275486" lon="9.51712945900594"><ele>254.75</ele><time>2026-04-30T13:14:36.989Z</time></trkpt><trkpt lat="40.787294854641345" lon="9.517148251842642"><ele>255.5</ele><time>2026-04-30T13:14:37.989Z</time></trkpt><trkpt lat="40.78718260664129" lon="9.517169723661723"><ele>256.25</ele><time>2026-04-30T13:14:38.989Z</time></trkpt><trkpt lat="40.787069054093905" lon="9.517182897129148"><ele>257.0</ele><time>2026-04-30T13:14:39.989Z</time></trkpt><trkpt lat="40.78694316611739" lon="9.517195081628516"><ele>255.33333333333334</ele><time>2026-04-30T13:14:40.989Z</time></trkpt><trkpt lat="40.78680270685442" lon="9.517196171973245"><ele>253.66666666666669</ele><time>2026-04-30T13:14:41.989Z</time></trkpt><trkpt lat="40.786637342274034" lon="9.517198072733658"><ele>252.0</ele><time>2026-04-30T13:14:42.989Z</time></trkpt><trkpt lat="40.78646547572263" lon="9.517192848475762"><ele>252.0</ele><time>2026-04-30T13:14:43.989Z</time></trkpt><trkpt lat="40.7863084411208" lon="9.51718658401805"><ele>252.0</ele><time>2026-04-30T13:14:46.989Z</time></trkpt><trkpt lat="40.786204846434586" lon="9.517163992333884"><ele>252.0</ele><time>2026-04-30T13:14:47.989Z</time></trkpt><trkpt lat="40.78609841918881" lon="9.517138719702482"><ele>252.0</ele><time>2026-04-30T13:14:48.989Z</time></trkpt><trkpt lat="40.78598896495801" lon="9.517105632644604"><ele>250.75</ele><time>2026-04-30T13:14:49.989Z</time></trkpt><trkpt lat="40.785873202608634" lon="9.517068200981106"><ele>249.5</ele><time>2026-04-30T13:14:50.989Z</time></trkpt><trkpt lat="40.78575408848063" lon="9.517028944523918"><ele>248.25</ele><time>2026-04-30T13:14:51.989Z</time></trkpt><trkpt lat="40.78563049641286" lon="9.51698090002528"><ele>247.0</ele><time>2026-04-30T13:14:52.989Z</time></trkpt><trkpt lat="40.78550935149213" lon="9.516923880999313"><ele>247.0</ele><time>2026-04-30T13:14:53.988Z</time></trkpt><trkpt lat="40.78539160947381" lon="9.516863804819035"><ele>247.0</ele><time>2026-04-30T13:14:54.987Z</time></trkpt><trkpt lat="40.7852702230389" lon="9.516790385521144"><ele>247.0</ele><time>2026-04-30T13:14:55.987Z</time></trkpt><trkpt lat="40.78514846549303" lon="9.51670953173922"><ele>247.0</ele><time>2026-04-30T13:14:56.988Z</time></trkpt><trkpt lat="40.78502234785589" lon="9.516626536055734"><ele>244.5</ele><time>2026-04-30T13:14:57.986Z</time></trkpt><trkpt lat="40.78490614712161" lon="9.516536448827434"><ele>242.0</ele><time>2026-04-30T13:14:58.986Z</time></trkpt><trkpt lat="40.78479438972815" lon="9.51644744267571"><ele>239.5</ele><time>2026-04-30T13:14:59.987Z</time></trkpt><trkpt lat="40.78468951480912" lon="9.51636420698869"><ele>237.0</ele><time>2026-04-30T13:15:00.987Z</time></trkpt><trkpt lat="40.78458574688484" lon="9.516284394422756"><ele>237.5</ele><time>2026-04-30T13:15:01.987Z</time></trkpt><trkpt lat="40.78449500174738" lon="9.51621426877915"><ele>238.0</ele><time>2026-04-30T13:15:02.987Z</time></trkpt><trkpt lat="40.78442308344775" lon="9.516161170572449"><ele>238.5</ele><time>2026-04-30T13:15:03.987Z</time></trkpt><trkpt lat="40.78436705876893" lon="9.51612272383671"><ele>239.0</ele><time>2026-04-30T13:15:04.987Z</time></trkpt><trkpt lat="40.78429349430801" lon="9.516083562370156"><ele>239.5</ele><time>2026-04-30T13:15:06.987Z</time></trkpt><trkpt lat="40.78436452233891" lon="9.516053673915419"><ele>240.0</ele><time>2026-04-30T13:15:15.987Z</time></trkpt><trkpt lat="40.78443727536175" lon="9.516116722903645"><ele>239.5</ele><time>2026-04-30T13:15:18.987Z</time></trkpt><trkpt lat="40.78454424915101" lon="9.516145165146378"><ele>239.0</ele><time>2026-04-30T13:15:20.987Z</time></trkpt><trkpt lat="40.784605496423694" lon="9.51619004615747"><ele>238.5</ele><time>2026-04-30T13:15:21.987Z</time></trkpt><trkpt lat="40.7846602373803" lon="9.516234932811916"><ele>238.0</ele><time>2026-04-30T13:15:22.987Z</time></trkpt><trkpt lat="40.784719374577215" lon="9.516278387565043"><ele>237.5</ele><time>2026-04-30T13:15:23.987Z</time></trkpt><trkpt lat="40.78479180936925" lon="9.516308869643622"><ele>237.0</ele><time>2026-04-30T13:15:24.987Z</time></trkpt><trkpt lat="40.78491666558117" lon="9.516323051181612"><ele>237.0</ele><time>2026-04-30T13:15:26.987Z</time></trkpt><trkpt lat="40.78503208541424" lon="9.516368949622516"><ele>237.0</ele><time>2026-04-30T13:15:28.987Z</time></trkpt><trkpt lat="40.78509375763846" lon="9.516393320941571"><ele>237.0</ele><time>2026-04-30T13:15:29.987Z</time></trkpt><trkpt lat="40.78516187169436" lon="9.516405779659303"><ele>237.0</ele><time>2026-04-30T13:15:30.987Z</time></trkpt><trkpt lat="40.78527422816992" lon="9.516430572834173"><ele>237.0</ele><time>2026-04-30T13:15:32.987Z</time></trkpt><trkpt lat="40.78537915242356" lon="9.51644536206787"><ele>239.0</ele><time>2026-04-30T13:15:34.987Z</time></trkpt><trkpt lat="40.78542738891304" lon="9.516562347239075"><ele>241.0</ele><time>2026-04-30T13:15:35.987Z</time></trkpt><trkpt lat="40.78554808799245" lon="9.51658040528313"><ele>243.0</ele><time>2026-04-30T13:15:37.987Z</time></trkpt><trkpt lat="40.78565682777153" lon="9.516556213411304"><ele>245.0</ele><time>2026-04-30T13:15:39.987Z</time></trkpt><trkpt lat="40.785771116834894" lon="9.516551737588498"><ele>247.0</ele><time>2026-04-30T13:15:41.987Z</time></trkpt><trkpt lat="40.78586989564971" lon="9.51650822785695"><ele>246.99999999999997</ele><time>2026-04-30T13:15:43.987Z</time></trkpt><trkpt lat="40.78594932448706" lon="9.51645783274255"><ele>247.0</ele><time>2026-04-30T13:15:45.987Z</time></trkpt><trkpt lat="40.78597229399731" lon="9.516367561449902"><ele>247.0</ele><time>2026-04-30T13:15:48.987Z</time></trkpt><trkpt lat="40.78603340229611" lon="9.516317762189937"><ele>247.0</ele><time>2026-04-30T13:16:07.988Z</time></trkpt><trkpt lat="40.78597807787624" lon="9.516359171850373"><ele>246.99999999999997</ele><time>2026-04-30T13:16:22.988Z</time></trkpt><trkpt lat="40.785934957037036" lon="9.516472739322495"><ele>247.0</ele><time>2026-04-30T13:16:24.988Z</time></trkpt><trkpt lat="40.78586687735464" lon="9.516533670609329"><ele>246.99999999999997</ele><time>2026-04-30T13:16:26.988Z</time></trkpt><trkpt lat="40.78575396887188" lon="9.516562750901675"><ele>247.0</ele><time>2026-04-30T13:16:28.988Z</time></trkpt><trkpt lat="40.78568376774048" lon="9.516570552541442"><ele>247.0</ele><time>2026-04-30T13:16:29.988Z</time></trkpt><trkpt lat="40.785616128363834" lon="9.516586443103865"><ele>247.0</ele><time>2026-04-30T13:16:30.988Z</time></trkpt><trkpt lat="40.78554181709252" lon="9.51658709374546"><ele>246.99999999999997</ele><time>2026-04-30T13:16:31.988Z</time></trkpt><trkpt lat="40.78547261133987" lon="9.516579563794076"><ele>247.0</ele><time>2026-04-30T13:16:32.988Z</time></trkpt><trkpt lat="40.7853729357885" lon="9.516545612292884"><ele>247.0</ele><time>2026-04-30T13:16:34.988Z</time></trkpt><trkpt lat="40.78528494721778" lon="9.516452895653805"><ele>247.0</ele><time>2026-04-30T13:16:36.988Z</time></trkpt><trkpt lat="40.78520107418271" lon="9.5163348573626"><ele>247.0</ele><time>2026-04-30T13:16:38.988Z</time></trkpt><trkpt lat="40.78514806295121" lon="9.516259756971563"><ele>247.0</ele><time>2026-04-30T13:16:39.988Z</time></trkpt><trkpt lat="40.785054634721334" lon="9.516185238020629"><ele>247.0</ele><time>2026-04-30T13:16:41.988Z</time></trkpt><trkpt lat="40.784964285705584" lon="9.51615390592602"><ele>247.0</ele><time>2026-04-30T13:16:43.988Z</time></trkpt><trkpt lat="40.7850536289358" lon="9.51622682460721"><ele>247.0</ele><time>2026-04-30T13:17:40.987Z</time></trkpt><trkpt lat="40.78515997515812" lon="9.516288372479208"><ele>247.0</ele><time>2026-04-30T13:17:42.987Z</time></trkpt><trkpt lat="40.785223371113645" lon="9.516381764370161"><ele>247.0</ele><time>2026-04-30T13:17:44.987Z</time></trkpt><trkpt lat="40.78523787675084" lon="9.516491969491737"><ele>247.0</ele><time>2026-04-30T13:17:46.987Z</time></trkpt><trkpt lat="40.78531610360736" lon="9.516529118101587"><ele>247.0</ele><time>2026-04-30T13:17:48.987Z</time></trkpt><trkpt lat="40.785412290001446" lon="9.516586606107424"><ele>247.0</ele><time>2026-04-30T13:17:50.987Z</time></trkpt><trkpt lat="40.785485839182094" lon="9.516602414965012"><ele>247.0</ele><time>2026-04-30T13:17:52.987Z</time></trkpt><trkpt lat="40.785569850787724" lon="9.516588127150893"><ele>247.0</ele><time>2026-04-30T13:17:55.987Z</time></trkpt><trkpt lat="40.78569001930517" lon="9.51658455221147"><ele>247.0</ele><time>2026-04-30T13:17:57.987Z</time></trkpt><trkpt lat="40.78575830771923" lon="9.516563301371384"><ele>246.99999999999997</ele><time>2026-04-30T13:17:58.987Z</time></trkpt><trkpt lat="40.78582129424856" lon="9.516542039202685"><ele>247.0</ele><time>2026-04-30T13:17:59.987Z</time></trkpt><trkpt lat="40.785895477180496" lon="9.516482674593048"><ele>247.0</ele><time>2026-04-30T13:18:01.987Z</time></trkpt><trkpt lat="40.78593593461685" lon="9.516385789348178"><ele>247.0</ele><time>2026-04-30T13:18:03.987Z</time></trkpt><trkpt lat="40.7860182845215" lon="9.516306032360305"><ele>246.99999999999997</ele><time>2026-04-30T13:18:05.987Z</time></trkpt><trkpt lat="40.78609901587961" lon="9.51636327414525"><ele>247.0</ele><time>2026-04-30T13:18:07.987Z</time></trkpt><trkpt lat="40.786164981908726" lon="9.516392680842767"><ele>248.49999999999997</ele><time>2026-04-30T13:18:09.987Z</time></trkpt><trkpt lat="40.78626339247836" lon="9.516395180097769"><ele>250.0</ele><time>2026-04-30T13:18:11.987Z</time></trkpt><trkpt lat="40.786359429770634" lon="9.51630988848931"><ele>251.5</ele><time>2026-04-30T13:18:13.987Z</time></trkpt><trkpt lat="40.78640564837386" lon="9.51625089483806"><ele>253.0</ele><time>2026-04-30T13:18:14.987Z</time></trkpt><trkpt lat="40.78645053039137" lon="9.516161510667269"><ele>254.49999999999997</ele><time>2026-04-30T13:18:16.987Z</time></trkpt><trkpt lat="40.78649029993586" lon="9.516079294433455"><ele>256.0</ele><time>2026-04-30T13:18:18.987Z</time></trkpt><trkpt lat="40.78656562048496" lon="9.516016383393165"><ele>257.85714285714283</ele><time>2026-04-30T13:18:21.987Z</time></trkpt><trkpt lat="40.78659563265886" lon="9.515940050511183"><ele>259.71428571428567</ele><time>2026-04-30T13:18:23.987Z</time></trkpt><trkpt lat="40.7866478791526" lon="9.5158708791769"><ele>261.57142857142856</ele><time>2026-04-30T13:18:29.987Z</time></trkpt><trkpt lat="40.786702685329026" lon="9.515804527347893"><ele>263.42857142857144</ele><time>2026-04-30T13:18:36.987Z</time></trkpt><trkpt lat="40.78674578390159" lon="9.515728210361697"><ele>265.28571428571433</ele><time>2026-04-30T13:18:44.987Z</time></trkpt><trkpt lat="40.78679535192446" lon="9.515663555915067"><ele>267.14285714285717</ele><time>2026-04-30T13:18:59.987Z</time></trkpt><trkpt lat="40.786868854409136" lon="9.515628402100509"><ele>269.0</ele><time>2026-04-30T13:19:03.987Z</time></trkpt><trkpt lat="40.78693277190248" lon="9.515649318081186"><ele>271.1666666666667</ele><time>2026-04-30T13:19:06.985Z</time></trkpt><trkpt lat="40.78698805080452" lon="9.515724620510962"><ele>273.33333333333337</ele><time>2026-04-30T13:19:09.986Z</time></trkpt><trkpt lat="40.78704238243511" lon="9.515826182210583"><ele>275.5</ele><time>2026-04-30T13:19:13.985Z</time></trkpt><trkpt lat="40.78710385038627" lon="9.515882273477548"><ele>277.6666666666667</ele><time>2026-04-30T13:19:15.985Z</time></trkpt><trkpt lat="40.78714500222483" lon="9.515949772370655"><ele>279.8333333333333</ele><time>2026-04-30T13:19:17.985Z</time></trkpt><trkpt lat="40.78722891566948" lon="9.516036423740134"><ele>282.0</ele><time>2026-04-30T13:19:20.985Z</time></trkpt><trkpt lat="40.78730513204055" lon="9.516087835325976"><ele>282.0</ele><time>2026-04-30T13:19:22.985Z</time></trkpt><trkpt lat="40.787370768801814" lon="9.516112351000446"><ele>282.0</ele><time>2026-04-30T13:19:25.985Z</time></trkpt><trkpt lat="40.787433754436655" lon="9.51607732471548"><ele>282.0</ele><time>2026-04-30T13:19:28.985Z</time></trkpt><trkpt lat="40.78749670994244" lon="9.516042175758418"><ele>282.0</ele><time>2026-04-30T13:19:32.985Z</time></trkpt><trkpt lat="40.78742737291637" lon="9.516010934576753"><ele>282.0</ele><time>2026-04-30T13:29:24.984Z</time></trkpt><trkpt lat="40.78743696757074" lon="9.51591027402683"><ele>282.0</ele><time>2026-04-30T13:29:44.983Z</time></trkpt><trkpt lat="40.78746864066898" lon="9.515821627976335"><ele>282.0</ele><time>2026-04-30T13:29:49.983Z</time></trkpt><trkpt lat="40.78749402608216" lon="9.51574333043339"><ele>282.0</ele><time>2026-04-30T13:31:19.984Z</time></trkpt><trkpt lat="40.78743302607255" lon="9.515671246854604"><ele>282.0</ele><time>2026-04-30T13:31:23.984Z</time></trkpt><trkpt lat="40.787403339628256" lon="9.515581773833183"><ele>282.0</ele><time>2026-04-30T13:31:27.984Z</time></trkpt><trkpt lat="40.787382142108584" lon="9.515489440947468"><ele>282.0</ele><time>2026-04-30T13:31:31.984Z</time></trkpt><trkpt lat="40.78737398738934" lon="9.515401325761717"><ele>282.0</ele><time>2026-04-30T13:31:33.984Z</time></trkpt><trkpt lat="40.787378545735834" lon="9.515303824156872"><ele>282.0</ele><time>2026-04-30T13:31:37.984Z</time></trkpt><trkpt lat="40.7873435817871" lon="9.515208420393067"><ele>285.57142857142856</ele><time>2026-04-30T13:31:57.982Z</time></trkpt><trkpt lat="40.787324859657616" lon="9.51512195333614"><ele>289.1428571428571</ele><time>2026-04-30T13:32:03.982Z</time></trkpt><trkpt lat="40.787327855723014" lon="9.515030546588601"><ele>292.71428571428567</ele><time>2026-04-30T13:35:26.982Z</time></trkpt><trkpt lat="40.78733940186205" lon="9.514947787172517"><ele>296.2857142857143</ele><time>2026-04-30T13:36:05.98Z</time></trkpt><trkpt lat="40.78739637643694" lon="9.514987500576295"><ele>299.85714285714283</ele><time>2026-04-30T13:36:11.98Z</time></trkpt><trkpt lat="40.787453332350445" lon="9.515061263846187"><ele>303.4285714285714</ele><time>2026-04-30T13:36:14.98Z</time></trkpt><trkpt lat="40.78749680809216" lon="9.515142250025619"><ele>307.0</ele><time>2026-04-30T13:36:17.98Z</time></trkpt><trkpt lat="40.78756947528388" lon="9.515196879549222"><ele>307.0</ele><time>2026-04-30T13:38:21.978Z</time></trkpt><trkpt lat="40.78760201835685" lon="9.515293587900851"><ele>307.0</ele><time>2026-04-30T13:38:24.978Z</time></trkpt><trkpt lat="40.78767915273762" lon="9.515344161944995"><ele>307.0</ele><time>2026-04-30T13:38:27.978Z</time></trkpt><trkpt lat="40.787765341819345" lon="9.515336478459174"><ele>307.0</ele><time>2026-04-30T13:38:30.978Z</time></trkpt><trkpt lat="40.78783605891164" lon="9.515324074143894"><ele>307.0</ele><time>2026-04-30T13:38:45.979Z</time></trkpt><trkpt lat="40.78790680727568" lon="9.51537628597345"><ele>307.0</ele><time>2026-04-30T13:38:48.979Z</time></trkpt><trkpt lat="40.78795995301592" lon="9.515423755340235"><ele>308.66666666666663</ele><time>2026-04-30T13:38:50.979Z</time></trkpt><trkpt lat="40.78803057280041" lon="9.515450187118587"><ele>310.3333333333333</ele><time>2026-04-30T13:38:53.979Z</time></trkpt><trkpt lat="40.78811879725962" lon="9.515476042559667"><ele>312.0</ele><time>2026-04-30T13:39:04.979Z</time></trkpt><trkpt lat="40.78819524786252" lon="9.51546141354751"><ele>313.6666666666667</ele><time>2026-04-30T13:39:07.979Z</time></trkpt><trkpt lat="40.78825190474489" lon="9.51537514214319"><ele>315.33333333333337</ele><time>2026-04-30T13:39:10.979Z</time></trkpt><trkpt lat="40.78829260727379" lon="9.51530872339364"><ele>317.0</ele><time>2026-04-30T13:39:13.979Z</time></trkpt><trkpt lat="40.78834259929412" lon="9.515227681379596"><ele>317.0</ele><time>2026-04-30T13:39:23.979Z</time></trkpt><trkpt lat="40.78840940737459" lon="9.51519016680227"><ele>317.0</ele><time>2026-04-30T13:39:31.979Z</time></trkpt><trkpt lat="40.78847321998492" lon="9.515143989749657"><ele>317.0</ele><time>2026-04-30T13:39:35.979Z</time></trkpt><trkpt lat="40.78851324621306" lon="9.515064462114704"><ele>317.0</ele><time>2026-04-30T13:39:46.979Z</time></trkpt><trkpt lat="40.78846210519286" lon="9.514995714648547"><ele>317.0</ele><time>2026-04-30T13:39:50.979Z</time></trkpt><trkpt lat="40.78839870319564" lon="9.515010337338618"><ele>317.0</ele><time>2026-04-30T13:39:52.979Z</time></trkpt><trkpt lat="40.78831997484929" lon="9.5150187346813"><ele>317.0</ele><time>2026-04-30T13:39:59.979Z</time></trkpt><trkpt lat="40.78824157881116" lon="9.515010174894515"><ele>317.0</ele><time>2026-04-30T13:40:02.979Z</time></trkpt><trkpt lat="40.78815726905015" lon="9.515043413571982"><ele>317.0</ele><time>2026-04-30T13:40:05.976Z</time></trkpt><trkpt lat="40.788098106841225" lon="9.514992656014414"><ele>317.0</ele><time>2026-04-30T13:40:10.977Z</time></trkpt><trkpt lat="40.78807627700396" lon="9.514907218913702"><ele>317.0</ele><time>2026-04-30T13:40:14.976Z</time></trkpt><trkpt lat="40.78804513322792" lon="9.514816060349276"><ele>317.0</ele><time>2026-04-30T13:40:18.977Z</time></trkpt><trkpt lat="40.788017186491516" lon="9.514727907385506"><ele>317.0</ele><time>2026-04-30T13:40:20.977Z</time></trkpt><trkpt lat="40.78799135635921" lon="9.51460869036265"><ele>319.8571428571429</ele><time>2026-04-30T13:40:23.977Z</time></trkpt><trkpt lat="40.78794760290823" lon="9.514528940454486"><ele>322.7142857142857</ele><time>2026-04-30T13:40:26.977Z</time></trkpt><trkpt lat="40.78787877944365" lon="9.51446886453063"><ele>325.57142857142856</ele><time>2026-04-30T13:40:30.977Z</time></trkpt><trkpt lat="40.78782504119157" lon="9.514407005368405"><ele>328.42857142857144</ele><time>2026-04-30T13:40:33.977Z</time></trkpt><trkpt lat="40.787768460656956" lon="9.514368665675633"><ele>331.2857142857143</ele><time>2026-04-30T13:40:36.977Z</time></trkpt><trkpt lat="40.78772001598544" lon="9.514291113608188"><ele>334.14285714285717</ele><time>2026-04-30T13:41:06.977Z</time></trkpt><trkpt lat="40.787665648819726" lon="9.514235444707639"><ele>337.0</ele><time>2026-04-30T13:41:16.977Z</time></trkpt><trkpt lat="40.7876323815565" lon="9.514164789293304"><ele>337.00000000000006</ele><time>2026-04-30T13:41:19.977Z</time></trkpt><trkpt lat="40.78757921923919" lon="9.514115274595731"><ele>337.0</ele><time>2026-04-30T13:41:22.977Z</time></trkpt><trkpt lat="40.787520473747556" lon="9.514069748540672"><ele>337.0</ele><time>2026-04-30T13:41:36.977Z</time></trkpt><trkpt lat="40.787463728432996" lon="9.5140165946297"><ele>337.0</ele><time>2026-04-30T13:41:40.977Z</time></trkpt><trkpt lat="40.787395961751365" lon="9.513968182585664"><ele>337.0</ele><time>2026-04-30T13:41:54.977Z</time></trkpt><trkpt lat="40.78733866346494" lon="9.513911480855231"><ele>337.00000000000006</ele><time>2026-04-30T13:41:59.977Z</time></trkpt><trkpt lat="40.78727958462688" lon="9.513877050476632"><ele>337.0</ele><time>2026-04-30T13:42:19.974Z</time></trkpt><trkpt lat="40.787215673515256" lon="9.51382234727602"><ele>337.00000000000006</ele><time>2026-04-30T13:42:23.974Z</time></trkpt><trkpt lat="40.787155164914175" lon="9.513793093308145"><ele>337.0</ele><time>2026-04-30T13:42:27.974Z</time></trkpt><trkpt lat="40.78708112689888" lon="9.513730985308403"><ele>337.0</ele><time>2026-04-30T13:42:30.974Z</time></trkpt><trkpt lat="40.787014760067485" lon="9.51370357026428"><ele>337.0</ele><time>2026-04-30T13:42:33.974Z</time></trkpt><trkpt lat="40.786947507470146" lon="9.513686422542838"><ele>337.0</ele><time>2026-04-30T13:42:36.974Z</time></trkpt><trkpt lat="40.78686809047508" lon="9.513668331288866"><ele>337.00000000000006</ele><time>2026-04-30T13:42:39.974Z</time></trkpt><trkpt lat="40.78681050224458" lon="9.513613448648636"><ele>337.0</ele><time>2026-04-30T13:42:42.974Z</time></trkpt><trkpt lat="40.78674174890654" lon="9.51358284432652"><ele>342.5</ele><time>2026-04-30T13:42:46.974Z</time></trkpt><trkpt lat="40.78666253453965" lon="9.513572148931736"><ele>348.0</ele><time>2026-04-30T13:42:49.974Z</time></trkpt><trkpt lat="40.78658714284852" lon="9.513575486094808"><ele>353.5</ele><time>2026-04-30T13:42:56.974Z</time></trkpt><trkpt lat="40.78650701645237" lon="9.513580698138348"><ele>359.0</ele><time>2026-04-30T13:42:59.974Z</time></trkpt><trkpt lat="40.78643462380083" lon="9.513598927227129"><ele>364.5</ele><time>2026-04-30T13:43:02.974Z</time></trkpt><trkpt lat="40.78635508404572" lon="9.513588578187674"><ele>370.0</ele><time>2026-04-30T13:43:05.974Z</time></trkpt><trkpt lat="40.78628941396462" lon="9.513579686122208"><ele>370.0</ele><time>2026-04-30T13:43:07.974Z</time></trkpt><trkpt lat="40.78620036220978" lon="9.51359244080353"><ele>370.0</ele><time>2026-04-30T13:43:10.974Z</time></trkpt><trkpt lat="40.78613445075283" lon="9.513610876708974"><ele>370.0</ele><time>2026-04-30T13:43:12.974Z</time></trkpt><trkpt lat="40.78606255344568" lon="9.513623262107915"><ele>370.0</ele><time>2026-04-30T13:43:14.974Z</time></trkpt><trkpt lat="40.78597695762178" lon="9.513650892536658"><ele>370.0</ele><time>2026-04-30T13:43:17.974Z</time></trkpt><trkpt lat="40.7859115132293" lon="9.513683390313329"><ele>370.0</ele><time>2026-04-30T13:43:19.975Z</time></trkpt><trkpt lat="40.78583028752966" lon="9.513709484190715"><ele>368.57142857142856</ele><time>2026-04-30T13:43:22.975Z</time></trkpt><trkpt lat="40.7857497515944" lon="9.513691835361179"><ele>367.1428571428571</ele><time>2026-04-30T13:43:25.975Z</time></trkpt><trkpt lat="40.78568134850244" lon="9.5136746644115"><ele>365.71428571428567</ele><time>2026-04-30T13:43:28.975Z</time></trkpt><trkpt lat="40.78560983032205" lon="9.51363429387244"><ele>364.2857142857143</ele><time>2026-04-30T13:43:31.975Z</time></trkpt><trkpt lat="40.785553610517276" lon="9.5135791056136"><ele>362.8571428571429</ele><time>2026-04-30T13:43:34.975Z</time></trkpt><trkpt lat="40.78554913977518" lon="9.513481239504591"><ele>361.4285714285714</ele><time>2026-04-30T13:43:37.975Z</time></trkpt><trkpt lat="40.78557211735986" lon="9.513396540103122"><ele>360.0</ele><time>2026-04-30T13:43:40.975Z</time></trkpt><trkpt lat="40.78559703880579" lon="9.513300952395303"><ele>360.0</ele><time>2026-04-30T13:43:43.975Z</time></trkpt><trkpt lat="40.78563420880259" lon="9.51321087297268"><ele>360.0</ele><time>2026-04-30T13:44:30.972Z</time></trkpt><trkpt lat="40.78566418576494" lon="9.513103382825886"><ele>360.0</ele><time>2026-04-30T13:44:33.972Z</time></trkpt><trkpt lat="40.785683444811205" lon="9.513004982967562"><ele>360.0</ele><time>2026-04-30T13:44:36.972Z</time></trkpt><trkpt lat="40.78563505635299" lon="9.5131422653796"><ele>360.0</ele><time>2026-04-30T14:02:53.954Z</time></trkpt><trkpt lat="40.78561264473111" lon="9.513235434626983"><ele>360.0</ele><time>2026-04-30T14:02:56.954Z</time></trkpt><trkpt lat="40.785573027260156" lon="9.513321667460042"><ele>360.0</ele><time>2026-04-30T14:03:18.952Z</time></trkpt><trkpt lat="40.78554769154987" lon="9.51341053444506"><ele>360.0</ele><time>2026-04-30T14:03:22.952Z</time></trkpt><trkpt lat="40.78553044576174" lon="9.513498591821753"><ele>360.0</ele><time>2026-04-30T14:03:26.951Z</time></trkpt><trkpt lat="40.7855336617163" lon="9.513587023213042"><ele>360.0</ele><time>2026-04-30T14:03:30.951Z</time></trkpt><trkpt lat="40.78557204773256" lon="9.513652995383653"><ele>360.0</ele><time>2026-04-30T14:03:33.951Z</time></trkpt><trkpt lat="40.78564445298383" lon="9.513690195056148"><ele>360.0</ele><time>2026-04-30T14:03:37.951Z</time></trkpt><trkpt lat="40.78571554589197" lon="9.513706208005656"><ele>360.0</ele><time>2026-04-30T14:03:40.951Z</time></trkpt><trkpt lat="40.7857956815312" lon="9.513700571987854"><ele>360.0</ele><time>2026-04-30T14:03:43.951Z</time></trkpt><trkpt lat="40.78586077093186" lon="9.513689308204867"><ele>360.0</ele><time>2026-04-30T14:03:46.951Z</time></trkpt><trkpt lat="40.785934764729" lon="9.513664001056462"><ele>360.0</ele><time>2026-04-30T14:03:49.951Z</time></trkpt><trkpt lat="40.78600471889208" lon="9.513638554450306"><ele>360.0</ele><time>2026-04-30T14:03:52.951Z</time></trkpt><trkpt lat="40.78608090469568" lon="9.513627179600467"><ele>360.0</ele><time>2026-04-30T14:03:56.951Z</time></trkpt><trkpt lat="40.78615668692431" lon="9.513610958567634"><ele>360.0</ele><time>2026-04-30T14:03:59.951Z</time></trkpt><trkpt lat="40.78622719654867" lon="9.51360689663104"><ele>360.0</ele><time>2026-04-30T14:04:02.951Z</time></trkpt><trkpt lat="40.786294245511456" lon="9.513601624508762"><ele>361.4285714285714</ele><time>2026-04-30T14:04:05.951Z</time></trkpt><trkpt lat="40.786372293691926" lon="9.513599546675865"><ele>362.8571428571429</ele><time>2026-04-30T14:04:08.951Z</time></trkpt><trkpt lat="40.786437231146316" lon="9.51359494114239"><ele>364.2857142857143</ele><time>2026-04-30T14:04:11.951Z</time></trkpt><trkpt lat="40.78651716535648" lon="9.513573770707106"><ele>365.71428571428567</ele><time>2026-04-30T14:04:15.951Z</time></trkpt><trkpt lat="40.786588326823235" lon="9.51356357864409"><ele>367.1428571428571</ele><time>2026-04-30T14:04:18.951Z</time></trkpt><trkpt lat="40.78665294099176" lon="9.513578679470012"><ele>368.57142857142856</ele><time>2026-04-30T14:04:22.951Z</time></trkpt><trkpt lat="40.78672042828202" lon="9.513594786976112"><ele>370.0</ele><time>2026-04-30T14:04:25.951Z</time></trkpt><trkpt lat="40.78678031334529" lon="9.513632972027528"><ele>369.99999999999994</ele><time>2026-04-30T14:04:28.952Z</time></trkpt><trkpt lat="40.78683759671663" lon="9.51367652571717"><ele>370.0</ele><time>2026-04-30T14:04:31.952Z</time></trkpt><trkpt lat="40.786908490022974" lon="9.513691671361867"><ele>370.0</ele><time>2026-04-30T14:04:34.952Z</time></trkpt><trkpt lat="40.78697844816209" lon="9.513704707900008"><ele>370.0</ele><time>2026-04-30T14:04:40.952Z</time></trkpt><trkpt lat="40.78704515156703" lon="9.513727562943988"><ele>370.0</ele><time>2026-04-30T14:04:43.952Z</time></trkpt><trkpt lat="40.78709724932413" lon="9.51377544290755"><ele>369.99999999999994</ele><time>2026-04-30T14:04:46.952Z</time></trkpt><trkpt lat="40.787162722745926" lon="9.513831091143748"><ele>370.0</ele><time>2026-04-30T14:04:50.952Z</time></trkpt><trkpt lat="40.78722993869925" lon="9.513869721086145"><ele>365.2857142857143</ele><time>2026-04-30T14:04:54.952Z</time></trkpt><trkpt lat="40.78728885022873" lon="9.513918228737488"><ele>360.57142857142856</ele><time>2026-04-30T14:04:59.952Z</time></trkpt><trkpt lat="40.78734344781425" lon="9.513978181250744"><ele>355.8571428571429</ele><time>2026-04-30T14:05:05.952Z</time></trkpt><trkpt lat="40.78740327905518" lon="9.514015776316938"><ele>351.1428571428571</ele><time>2026-04-30T14:05:10.952Z</time></trkpt><trkpt lat="40.78744943235758" lon="9.514074539353645"><ele>346.42857142857144</ele><time>2026-04-30T14:05:18.949Z</time></trkpt><trkpt lat="40.7875126796742" lon="9.51410965064795"><ele>341.7142857142857</ele><time>2026-04-30T14:05:23.948Z</time></trkpt><trkpt lat="40.78755078259757" lon="9.514177034269698"><ele>337.0</ele><time>2026-04-30T14:06:18.949Z</time></trkpt><trkpt lat="40.78760102097511" lon="9.514235750737594"><ele>337.00000000000006</ele><time>2026-04-30T14:06:26.949Z</time></trkpt><trkpt lat="40.787638359102075" lon="9.514307844980191"><ele>337.0</ele><time>2026-04-30T14:06:33.949Z</time></trkpt><trkpt lat="40.78768465204803" lon="9.514364504751946"><ele>337.0</ele><time>2026-04-30T14:06:38.949Z</time></trkpt><trkpt lat="40.78774819304633" lon="9.51440833660908"><ele>337.0</ele><time>2026-04-30T14:06:41.949Z</time></trkpt><trkpt lat="40.78780275135496" lon="9.51445239610327"><ele>337.0</ele><time>2026-04-30T14:06:44.949Z</time></trkpt><trkpt lat="40.78786993859544" lon="9.514512297284009"><ele>337.00000000000006</ele><time>2026-04-30T14:06:52.949Z</time></trkpt><trkpt lat="40.78792645029469" lon="9.514567620673416"><ele>337.0</ele><time>2026-04-30T14:06:55.949Z</time></trkpt><trkpt lat="40.78795223165482" lon="9.514646494757196"><ele>334.14285714285717</ele><time>2026-04-30T14:06:58.949Z</time></trkpt><trkpt lat="40.78796361203075" lon="9.514728761474784"><ele>331.2857142857143</ele><time>2026-04-30T14:07:01.949Z</time></trkpt><trkpt lat="40.78799280862879" lon="9.514834485782478"><ele>328.42857142857144</ele><time>2026-04-30T14:07:04.949Z</time></trkpt><trkpt lat="40.78803651412387" lon="9.51493956755658"><ele>325.57142857142856</ele><time>2026-04-30T14:07:08.949Z</time></trkpt><trkpt lat="40.788071843462575" lon="9.515010668579757"><ele>322.7142857142857</ele><time>2026-04-30T14:07:11.949Z</time></trkpt><trkpt lat="40.78813291048851" lon="9.515054248376073"><ele>319.8571428571429</ele><time>2026-04-30T14:07:15.949Z</time></trkpt><trkpt lat="40.78820752691776" lon="9.515038244826242"><ele>317.0</ele><time>2026-04-30T14:07:20.949Z</time></trkpt><trkpt lat="40.78828828790445" lon="9.515038145978187"><ele>317.0</ele><time>2026-04-30T14:08:58.946Z</time></trkpt><trkpt lat="40.78835874266571" lon="9.515018546091252"><ele>317.0</ele><time>2026-04-30T14:09:07.946Z</time></trkpt><trkpt lat="40.78843460252779" lon="9.514983342940244"><ele>317.0</ele><time>2026-04-30T14:09:11.946Z</time></trkpt><trkpt lat="40.78850207323317" lon="9.514991539517265"><ele>317.0</ele><time>2026-04-30T14:09:15.946Z</time></trkpt><trkpt lat="40.78851075161375" lon="9.515079613063836"><ele>317.0</ele><time>2026-04-30T14:09:21.946Z</time></trkpt><trkpt lat="40.78845687362427" lon="9.515135515733292"><ele>317.0</ele><time>2026-04-30T14:09:35.944Z</time></trkpt><trkpt lat="40.78839227118083" lon="9.515176880740464"><ele>317.0</ele><time>2026-04-30T14:09:49.943Z</time></trkpt><trkpt lat="40.788327521749395" lon="9.515226955036422"><ele>317.0</ele><time>2026-04-30T14:09:53.943Z</time></trkpt><trkpt lat="40.78828555717702" lon="9.51530968034833"><ele>317.0</ele><time>2026-04-30T14:10:10.943Z</time></trkpt><trkpt lat="40.788233393653655" lon="9.515384684762624"><ele>317.0</ele><time>2026-04-30T14:10:14.943Z</time></trkpt><trkpt lat="40.788194842980104" lon="9.51545101074854"><ele>317.0</ele><time>2026-04-30T14:10:18.943Z</time></trkpt><trkpt lat="40.78812728708373" lon="9.515472980458355"><ele>317.0</ele><time>2026-04-30T14:10:24.943Z</time></trkpt><trkpt lat="40.7880547112603" lon="9.515444818098718"><ele>317.0</ele><time>2026-04-30T14:10:28.943Z</time></trkpt><trkpt lat="40.78798864232731" lon="9.515414254777907"><ele>317.0</ele><time>2026-04-30T14:10:32.943Z</time></trkpt><trkpt lat="40.7879154184242" lon="9.515375863762708"><ele>317.0</ele><time>2026-04-30T14:10:39.943Z</time></trkpt><trkpt lat="40.78785207979964" lon="9.515319655457242"><ele>317.0</ele><time>2026-04-30T14:10:43.943Z</time></trkpt><trkpt lat="40.78779402923326" lon="9.515283396631073"><ele>317.0</ele><time>2026-04-30T14:10:52.943Z</time></trkpt><trkpt lat="40.78772041503166" lon="9.515286732024286"><ele>317.0</ele><time>2026-04-30T14:11:00.944Z</time></trkpt><trkpt lat="40.78765561468963" lon="9.515275126393469"><ele>317.0</ele><time>2026-04-30T14:11:05.944Z</time></trkpt><trkpt lat="40.787580006573414" lon="9.515237387210705"><ele>317.0</ele><time>2026-04-30T14:11:09.944Z</time></trkpt><trkpt lat="40.787527658521356" lon="9.515168989030688"><ele>317.0</ele><time>2026-04-30T14:11:12.944Z</time></trkpt><trkpt lat="40.787492229422135" lon="9.515094270496341"><ele>315.57142857142856</ele><time>2026-04-30T14:11:15.944Z</time></trkpt><trkpt lat="40.78745202733328" lon="9.515021340332924"><ele>314.1428571428571</ele><time>2026-04-30T14:11:19.944Z</time></trkpt><trkpt lat="40.787390523792226" lon="9.514971861422664"><ele>312.71428571428567</ele><time>2026-04-30T14:11:24.944Z</time></trkpt><trkpt lat="40.787333315564794" lon="9.514937041263304"><ele>311.2857142857143</ele><time>2026-04-30T14:11:30.944Z</time></trkpt><trkpt lat="40.78732170241549" lon="9.515020042587157"><ele>309.85714285714283</ele><time>2026-04-30T14:12:13.941Z</time></trkpt><trkpt lat="40.787317865631124" lon="9.5151083382637"><ele>308.4285714285714</ele><time>2026-04-30T14:12:28.941Z</time></trkpt><trkpt lat="40.787334867930866" lon="9.515190561056343"><ele>307.0</ele><time>2026-04-30T14:12:37.941Z</time></trkpt><trkpt lat="40.787350825355574" lon="9.51527242890751"><ele>307.0</ele><time>2026-04-30T14:12:41.941Z</time></trkpt><trkpt lat="40.78733598865748" lon="9.515361225289196"><ele>307.0</ele><time>2026-04-30T14:12:54.941Z</time></trkpt><trkpt lat="40.787326803639225" lon="9.515467829802597"><ele>307.0</ele><time>2026-04-30T14:13:03.942Z</time></trkpt><trkpt lat="40.787338499325415" lon="9.515572835873117"><ele>307.0</ele><time>2026-04-30T14:13:07.942Z</time></trkpt><trkpt lat="40.78735970518578" lon="9.515657429549423"><ele>307.0</ele><time>2026-04-30T14:13:11.942Z</time></trkpt><trkpt lat="40.78742518070743" lon="9.51574742982139"><ele>307.0</ele><time>2026-04-30T14:13:16.942Z</time></trkpt><trkpt lat="40.78747108825837" lon="9.51583916405942"><ele>303.4285714285714</ele><time>2026-04-30T14:13:47.94Z</time></trkpt><trkpt lat="40.787451771250076" lon="9.515920039183834"><ele>299.85714285714283</ele><time>2026-04-30T14:15:42.941Z</time></trkpt><trkpt lat="40.787479058642454" lon="9.51599941073625"><ele>296.2857142857143</ele><time>2026-04-30T14:16:02.939Z</time></trkpt><trkpt lat="40.787402121191235" lon="9.516051266487011"><ele>292.71428571428567</ele><time>2026-04-30T14:16:28.939Z</time></trkpt><trkpt lat="40.7873384058688" lon="9.516041114012085"><ele>289.1428571428571</ele><time>2026-04-30T14:16:31.933Z</time></trkpt><trkpt lat="40.78726416358522" lon="9.515979458436203"><ele>285.57142857142856</ele><time>2026-04-30T14:16:34.927Z</time></trkpt><trkpt lat="40.78719812939694" lon="9.515922222590849"><ele>282.0</ele><time>2026-04-30T14:16:37.921Z</time></trkpt><trkpt lat="40.787138979193315" lon="9.515859023059136"><ele>282.0</ele><time>2026-04-30T14:16:42.915Z</time></trkpt><trkpt lat="40.787067118787874" lon="9.515787413446047"><ele>282.0</ele><time>2026-04-30T14:16:45.912Z</time></trkpt><trkpt lat="40.78701622814805" lon="9.515713250291457"><ele>282.0</ele><time>2026-04-30T14:16:48.909Z</time></trkpt><trkpt lat="40.786973471051716" lon="9.515629786006784"><ele>282.0</ele><time>2026-04-30T14:16:52.906Z</time></trkpt><trkpt lat="40.786917790478995" lon="9.515570911816793"><ele>282.0</ele><time>2026-04-30T14:16:55.905Z</time></trkpt><trkpt lat="40.786844834099625" lon="9.515565460570022"><ele>282.0</ele><time>2026-04-30T14:16:59.903Z</time></trkpt><trkpt lat="40.786783946675875" lon="9.515625472465885"><ele>280.14285714285717</ele><time>2026-04-30T14:17:05.901Z</time></trkpt><trkpt lat="40.78672880848904" lon="9.515686178491972"><ele>278.2857142857143</ele><time>2026-04-30T14:17:12.899Z</time></trkpt><trkpt lat="40.786689564853084" lon="9.515771375857"><ele>276.42857142857144</ele><time>2026-04-30T14:17:21.898Z</time></trkpt><trkpt lat="40.78664970182622" lon="9.515853484128325"><ele>274.57142857142856</ele><time>2026-04-30T14:17:26.898Z</time></trkpt><trkpt lat="40.786616005974324" lon="9.515935577420139"><ele>272.7142857142857</ele><time>2026-04-30T14:17:30.898Z</time></trkpt><trkpt lat="40.78655676369559" lon="9.515992967051744"><ele>270.8571428571429</ele><time>2026-04-30T14:17:34.897Z</time></trkpt><trkpt lat="40.78651220526276" lon="9.516054615318925"><ele>269.0</ele><time>2026-04-30T14:17:37.897Z</time></trkpt><trkpt lat="40.78647051700818" lon="9.516157693755314"><ele>269.0</ele><time>2026-04-30T14:17:40.897Z</time></trkpt><trkpt lat="40.786415319714806" lon="9.516212563710875"><ele>269.0</ele><time>2026-04-30T14:17:42.897Z</time></trkpt><trkpt lat="40.78632767830165" lon="9.516255817646838"><ele>269.0</ele><time>2026-04-30T14:17:45.897Z</time></trkpt><trkpt lat="40.78626648129364" lon="9.51623545125646"><ele>269.0</ele><time>2026-04-30T14:17:48.897Z</time></trkpt><trkpt lat="40.78620592827676" lon="9.51620869756548"><ele>269.0</ele><time>2026-04-30T14:17:49.897Z</time></trkpt><trkpt lat="40.7861050345269" lon="9.516191023783527"><ele>269.0</ele><time>2026-04-30T14:17:51.897Z</time></trkpt><trkpt lat="40.786047016926545" lon="9.516252493096642"><ele>266.4</ele><time>2026-04-30T14:17:53.999Z</time></trkpt><trkpt lat="40.78601368462134" lon="9.516341843892425"><ele>263.79999999999995</ele><time>2026-04-30T14:17:55.999Z</time></trkpt><trkpt lat="40.78595219243276" lon="9.516428288183787"><ele>261.20000000000005</ele><time>2026-04-30T14:17:57.999Z</time></trkpt><trkpt lat="40.78586618410679" lon="9.516449085752383"><ele>258.6</ele><time>2026-04-30T14:17:59.999Z</time></trkpt><trkpt lat="40.785767692543395" lon="9.516499778574278"><ele>256.0</ele><time>2026-04-30T14:18:01.999Z</time></trkpt><trkpt lat="40.78567534742348" lon="9.516531430168179"><ele>254.7142857142857</ele><time>2026-04-30T14:18:03.999Z</time></trkpt><trkpt lat="40.785590791738805" lon="9.516537806524235"><ele>253.4285714285714</ele><time>2026-04-30T14:18:05.999Z</time></trkpt><trkpt lat="40.785525876581694" lon="9.51654834397444"><ele>252.14285714285714</ele><time>2026-04-30T14:18:07.999Z</time></trkpt><trkpt lat="40.785448370688904" lon="9.516566220091232"><ele>250.85714285714283</ele><time>2026-04-30T14:18:31Z</time></trkpt><trkpt lat="40.78538271139799" lon="9.51655948970687"><ele>249.57142857142856</ele><time>2026-04-30T14:56:04Z</time></trkpt><trkpt lat="40.78532588611942" lon="9.5165168247794"><ele>248.28571428571428</ele><time>2026-04-30T14:56:06Z</time></trkpt><trkpt lat="40.78526811786457" lon="9.516456807800814"><ele>247.0</ele><time>2026-04-30T14:56:08Z</time></trkpt><trkpt lat="40.785204198716876" lon="9.516411078316196"><ele>245.0</ele><time>2026-04-30T14:56:10Z</time></trkpt><trkpt lat="40.785131027151785" lon="9.516387854744652"><ele>243.0</ele><time>2026-04-30T14:56:12Z</time></trkpt><trkpt lat="40.78503708606079" lon="9.516352365402442"><ele>241.0</ele><time>2026-04-30T14:56:14Z</time></trkpt><trkpt lat="40.78492047787747" lon="9.51629976356815"><ele>239.0</ele><time>2026-04-30T14:56:16Z</time></trkpt><trkpt lat="40.78481268903629" lon="9.516271959643852"><ele>237.0</ele><time>2026-04-30T14:56:18Z</time></trkpt><trkpt lat="40.784715710728044" lon="9.516253071126782"><ele>237.6</ele><time>2026-04-30T14:56:20Z</time></trkpt><trkpt lat="40.784625323917325" lon="9.516180991657183"><ele>238.2</ele><time>2026-04-30T14:56:22Z</time></trkpt><trkpt lat="40.78453444536648" lon="9.51612530003105"><ele>238.8</ele><time>2026-04-30T14:56:24Z</time></trkpt><trkpt lat="40.78444481705284" lon="9.516078250302947"><ele>239.4</ele><time>2026-04-30T14:56:26Z</time></trkpt><trkpt lat="40.78436956840605" lon="9.516065343473944"><ele>240.0</ele><time>2026-04-30T14:56:28Z</time></trkpt><trkpt lat="40.78428490948574" lon="9.516069050229481"><ele>240.0</ele><time>2026-04-30T14:56:31Z</time></trkpt><trkpt lat="40.78426262385468" lon="9.516161131165523"><ele>240.0</ele><time>2026-04-30T14:56:36Z</time></trkpt><trkpt lat="40.7843383100972" lon="9.516211476435963"><ele>240.0</ele><time>2026-04-30T14:56:38Z</time></trkpt><trkpt lat="40.784405308958185" lon="9.516249481947357"><ele>240.0</ele><time>2026-04-30T14:56:39Z</time></trkpt><trkpt lat="40.78446919492538" lon="9.516277021751169"><ele>240.0</ele><time>2026-04-30T14:56:40Z</time></trkpt><trkpt lat="40.78454004898912" lon="9.516319563579824"><ele>240.0</ele><time>2026-04-30T14:56:41Z</time></trkpt><trkpt lat="40.78461975958184" lon="9.516370484846977"><ele>239.4</ele><time>2026-04-30T14:56:42Z</time></trkpt><trkpt lat="40.784699676800315" lon="9.516430182965475"><ele>238.8</ele><time>2026-04-30T14:56:43Z</time></trkpt><trkpt lat="40.784789248464655" lon="9.51648646882923"><ele>238.2</ele><time>2026-04-30T14:56:44Z</time></trkpt><trkpt lat="40.784881659368594" lon="9.516558417286625"><ele>237.6</ele><time>2026-04-30T14:56:45Z</time></trkpt><trkpt lat="40.78497526098414" lon="9.516639063489018"><ele>237.0</ele><time>2026-04-30T14:56:46Z</time></trkpt><trkpt lat="40.78507782628071" lon="9.516712042848914"><ele>239.5</ele><time>2026-04-30T14:56:47Z</time></trkpt><trkpt lat="40.785180312291274" lon="9.516784986852954"><ele>242.0</ele><time>2026-04-30T14:56:48Z</time></trkpt><trkpt lat="40.785285712481404" lon="9.51684898495059"><ele>244.5</ele><time>2026-04-30T14:56:49Z</time></trkpt><trkpt lat="40.785395941058596" lon="9.516916638103464"><ele>247.0</ele><time>2026-04-30T14:56:50Z</time></trkpt><trkpt lat="40.78550881891186" lon="9.516975845596708"><ele>247.0</ele><time>2026-04-30T14:56:51Z</time></trkpt><trkpt lat="40.78562905413095" lon="9.517027283566232"><ele>247.0</ele><time>2026-04-30T14:56:52Z</time></trkpt><trkpt lat="40.78574680744943" lon="9.5170786535454"><ele>247.0</ele><time>2026-04-30T14:56:53Z</time></trkpt><trkpt lat="40.78586926076564" lon="9.517119080960487"><ele>247.0</ele><time>2026-04-30T14:56:54Z</time></trkpt><trkpt lat="40.7859963873382" lon="9.517158118505309"><ele>248.25</ele><time>2026-04-30T14:56:55Z</time></trkpt><trkpt lat="40.78612288108631" lon="9.517189194283148"><ele>249.5</ele><time>2026-04-30T14:56:56Z</time></trkpt><trkpt lat="40.78625979134559" lon="9.517217594677502"><ele>250.75</ele><time>2026-04-30T14:56:57Z</time></trkpt><trkpt lat="40.786405681835525" lon="9.517238654082007"><ele>252.0</ele><time>2026-04-30T14:56:58Z</time></trkpt><trkpt lat="40.7865601394808" lon="9.517253054732599"><ele>252.0</ele><time>2026-04-30T14:56:59Z</time></trkpt><trkpt lat="40.78671225352248" lon="9.517258720268035"><ele>252.0</ele><time>2026-04-30T14:57:00Z</time></trkpt><trkpt lat="40.786863573149134" lon="9.517259212697288"><ele>252.0</ele><time>2026-04-30T14:57:01Z</time></trkpt><trkpt lat="40.78700973647855" lon="9.517245631373884"><ele>253.25</ele><time>2026-04-30T14:57:02Z</time></trkpt><trkpt lat="40.78715322089913" lon="9.517223293456452"><ele>254.5</ele><time>2026-04-30T14:57:03Z</time></trkpt><trkpt lat="40.78729694694984" lon="9.517192784061004"><ele>255.75</ele><time>2026-04-30T14:57:04Z</time></trkpt><trkpt lat="40.78744042773715" lon="9.517156114144214"><ele>257.0</ele><time>2026-04-30T14:57:05Z</time></trkpt><trkpt lat="40.78758888334283" lon="9.517118118923575"><ele>256.0</ele><time>2026-04-30T14:57:06Z</time></trkpt><trkpt lat="40.78774607652522" lon="9.517077131225417"><ele>255.0</ele><time>2026-04-30T14:57:07Z</time></trkpt><trkpt lat="40.787911548611454" lon="9.51703664433697"><ele>254.0</ele><time>2026-04-30T14:57:08Z</time></trkpt><trkpt lat="40.7880780867203" lon="9.516996999439035"><ele>254.0</ele><time>2026-04-30T14:57:09Z</time></trkpt><trkpt lat="40.788238332026204" lon="9.516958575090628"><ele>254.0</ele><time>2026-04-30T14:57:10Z</time></trkpt><trkpt lat="40.78840468118918" lon="9.516917776412273"><ele>254.0</ele><time>2026-04-30T14:57:11Z</time></trkpt><trkpt lat="40.78857447441152" lon="9.516881571104866"><ele>248.0</ele><time>2026-04-30T14:57:12Z</time></trkpt><trkpt lat="40.7887444306003" lon="9.516841635174142"><ele>242.0</ele><time>2026-04-30T14:57:13Z</time></trkpt><trkpt lat="40.78891436050958" lon="9.516800496418746"><ele>236.0</ele><time>2026-04-30T14:57:14Z</time></trkpt><trkpt lat="40.78907827835875" lon="9.516765195952045"><ele>236.0</ele><time>2026-04-30T14:57:15Z</time></trkpt><trkpt lat="40.789236679775456" lon="9.516725505813667"><ele>236.0</ele><time>2026-04-30T14:57:16Z</time></trkpt><trkpt lat="40.789392935787625" lon="9.516685678487503"><ele>236.0</ele><time>2026-04-30T14:57:17Z</time></trkpt><trkpt lat="40.78954975995494" lon="9.516644767033684"><ele>233.0</ele><time>2026-04-30T14:57:18Z</time></trkpt><trkpt lat="40.789700590836574" lon="9.516610743501262"><ele>230.0</ele><time>2026-04-30T14:57:19Z</time></trkpt><trkpt lat="40.789846483463414" lon="9.516599119542313"><ele>227.0</ele><time>2026-04-30T14:57:20Z</time></trkpt><trkpt lat="40.789987780355965" lon="9.516570592851224"><ele>224.0</ele><time>2026-04-30T14:57:21Z</time></trkpt><trkpt lat="40.79013593962736" lon="9.516542269157364"><ele>220.0</ele><time>2026-04-30T14:57:22Z</time></trkpt><trkpt lat="40.79028964490476" lon="9.51651859427842"><ele>216.0</ele><time>2026-04-30T14:57:23Z</time></trkpt><trkpt lat="40.79044931002146" lon="9.516500147819512"><ele>212.0</ele><time>2026-04-30T14:57:24Z</time></trkpt><trkpt lat="40.7906197171135" lon="9.516490216835049"><ele>212.0</ele><time>2026-04-30T14:57:25Z</time></trkpt><trkpt lat="40.790792931032605" lon="9.516485239732857"><ele>212.0</ele><time>2026-04-30T14:57:26Z</time></trkpt><trkpt lat="40.79096789583578" lon="9.516485917479141"><ele>212.0</ele><time>2026-04-30T14:57:27Z</time></trkpt><trkpt lat="40.791141330115586" lon="9.516489316275072"><ele>208.33333333333334</ele><time>2026-04-30T14:57:28Z</time></trkpt><trkpt lat="40.791318342223214" lon="9.516492785188069"><ele>204.66666666666669</ele><time>2026-04-30T14:57:29Z</time></trkpt><trkpt lat="40.79149714979081" lon="9.51649628928139"><ele>201.0</ele><time>2026-04-30T14:57:30Z</time></trkpt><trkpt lat="40.79167911443097" lon="9.516500440035916"><ele>200.66666666666669</ele><time>2026-04-30T14:57:31Z</time></trkpt><trkpt lat="40.79186056078313" lon="9.51650556787595"><ele>200.33333333333334</ele><time>2026-04-30T14:57:32Z</time></trkpt><trkpt lat="40.792048258011256" lon="9.516514184711873"><ele>200.0</ele><time>2026-04-30T14:57:33Z</time></trkpt><trkpt lat="40.7922402467333" lon="9.516526527575946"><ele>200.0</ele><time>2026-04-30T14:57:34Z</time></trkpt><trkpt lat="40.79243831183235" lon="9.516525607713406"><ele>200.0</ele><time>2026-04-30T14:57:35Z</time></trkpt><trkpt lat="40.79264299964962" lon="9.516543763013544"><ele>200.0</ele><time>2026-04-30T14:57:36Z</time></trkpt><trkpt lat="40.792843941494326" lon="9.516553280978487"><ele>199.33333333333334</ele><time>2026-04-30T14:57:37Z</time></trkpt><trkpt lat="40.79304266547307" lon="9.516568122252817"><ele>198.66666666666669</ele><time>2026-04-30T14:57:38Z</time></trkpt><trkpt lat="40.79323317870592" lon="9.516579187137449"><ele>198.0</ele><time>2026-04-30T14:57:39Z</time></trkpt><trkpt lat="40.79342160577806" lon="9.51661289678654"><ele>195.33333333333334</ele><time>2026-04-30T14:57:40Z</time></trkpt><trkpt lat="40.79361656180026" lon="9.516625000508785"><ele>192.66666666666669</ele><time>2026-04-30T14:57:41Z</time></trkpt><trkpt lat="40.793817094371875" lon="9.516630598017729"><ele>190.0</ele><time>2026-04-30T14:57:42Z</time></trkpt><trkpt lat="40.794017477877894" lon="9.516615798671289"><ele>190.0</ele><time>2026-04-30T14:57:43Z</time></trkpt><trkpt lat="40.79421635016252" lon="9.516575702823719"><ele>190.0</ele><time>2026-04-30T14:57:44Z</time></trkpt><trkpt lat="40.79441589618746" lon="9.516556487514922"><ele>190.0</ele><time>2026-04-30T14:57:45Z</time></trkpt><trkpt lat="40.79461774708502" lon="9.51655654363931"><ele>188.33333333333334</ele><time>2026-04-30T14:57:46Z</time></trkpt><trkpt lat="40.79481813266455" lon="9.516537949674417"><ele>186.66666666666666</ele><time>2026-04-30T14:57:47Z</time></trkpt><trkpt lat="40.79501653458027" lon="9.516518681494567"><ele>185.0</ele><time>2026-04-30T14:57:48Z</time></trkpt><trkpt lat="40.79521769565732" lon="9.516497403926541"><ele>183.0</ele><time>2026-04-30T14:57:49Z</time></trkpt><trkpt lat="40.795419401869836" lon="9.516494418733515"><ele>181.0</ele><time>2026-04-30T14:57:50Z</time></trkpt><trkpt lat="40.79562483855403" lon="9.516501975830296"><ele>179.0</ele><time>2026-04-30T14:57:51Z</time></trkpt><trkpt lat="40.79583658264889" lon="9.516510972528101"><ele>177.0</ele><time>2026-04-30T14:57:52Z</time></trkpt><trkpt lat="40.796047564226974" lon="9.516500887506531"><ele>175.0</ele><time>2026-04-30T14:57:53Z</time></trkpt><trkpt lat="40.79624707035063" lon="9.516509873199437"><ele>173.0</ele><time>2026-04-30T14:57:54Z</time></trkpt><trkpt lat="40.79643877067548" lon="9.516518026710298"><ele>173.0</ele><time>2026-04-30T14:57:55Z</time></trkpt><trkpt lat="40.796622481028486" lon="9.516548182012428"><ele>173.0</ele><time>2026-04-30T14:57:56Z</time></trkpt><trkpt lat="40.796798291084286" lon="9.516556254865089"><ele>173.0</ele><time>2026-04-30T14:57:57Z</time></trkpt><trkpt lat="40.79696659450628" lon="9.516563983034752"><ele>172.0</ele><time>2026-04-30T14:57:58Z</time></trkpt><trkpt lat="40.79711220447469" lon="9.516570669154303"><ele>171.0</ele><time>2026-04-30T14:57:59Z</time></trkpt><trkpt lat="40.797233783795015" lon="9.516576114279854"><ele>170.0</ele><time>2026-04-30T14:58:00Z</time></trkpt><trkpt lat="40.7973338166941" lon="9.516580627070299"><ele>169.0</ele><time>2026-04-30T14:58:01Z</time></trkpt><trkpt lat="40.79742281897316" lon="9.516584642237213"><ele>169.0</ele><time>2026-04-30T14:58:02Z</time></trkpt><trkpt lat="40.7975046094682" lon="9.516588332055495"><ele>169.0</ele><time>2026-04-30T14:58:03Z</time></trkpt><trkpt lat="40.797570311527075" lon="9.516583156925039"><ele>169.0</ele><time>2026-04-30T14:58:04Z</time></trkpt><trkpt lat="40.797646782218564" lon="9.516588740409608"><ele>169.0</ele><time>2026-04-30T14:58:06Z</time></trkpt><trkpt lat="40.79773204822754" lon="9.516585113898687"><ele>169.0</ele><time>2026-04-30T14:58:09Z</time></trkpt><trkpt lat="40.79774339611484" lon="9.516462297282267"><ele>169.0</ele><time>2026-04-30T14:58:18Z</time></trkpt><trkpt lat="40.7977063496438" lon="9.516325867474825"><ele>172.6</ele><time>2026-04-30T14:58:20Z</time></trkpt><trkpt lat="40.79766118608004" lon="9.516227301111202"><ele>176.2</ele><time>2026-04-30T14:58:21Z</time></trkpt><trkpt lat="40.797602166376265" lon="9.516144371491317"><ele>179.79999999999998</ele><time>2026-04-30T14:58:22Z</time></trkpt><trkpt lat="40.79754292069056" lon="9.516057597344316"><ele>183.39999999999998</ele><time>2026-04-30T14:58:23Z</time></trkpt><trkpt lat="40.79747540520329" lon="9.515956013988852"><ele>187.0</ele><time>2026-04-30T14:58:24Z</time></trkpt><trkpt lat="40.797398341585755" lon="9.515848837310685"><ele>187.0</ele><time>2026-04-30T14:58:25Z</time></trkpt><trkpt lat="40.79730287943158" lon="9.515737667437637"><ele>187.0</ele><time>2026-04-30T14:58:26Z</time></trkpt><trkpt lat="40.797211201143824" lon="9.515621507476023"><ele>187.0</ele><time>2026-04-30T14:58:27Z</time></trkpt><trkpt lat="40.79709450252159" lon="9.515509961228396"><ele>187.0</ele><time>2026-04-30T14:58:28Z</time></trkpt><trkpt lat="40.79695964253196" lon="9.515490632084866"><ele>187.33333333333334</ele><time>2026-04-30T14:58:29Z</time></trkpt><trkpt lat="40.79680693324959" lon="9.515480581968891"><ele>187.66666666666666</ele><time>2026-04-30T14:58:30Z</time></trkpt><trkpt lat="40.796650288093154" lon="9.515526044439094"><ele>188.0</ele><time>2026-04-30T14:58:31Z</time></trkpt><trkpt lat="40.79644942131869" lon="9.515628621483076"><ele>188.0</ele><time>2026-04-30T14:58:32.001Z</time></trkpt><trkpt lat="40.79627179420623" lon="9.515723032664923"><ele>188.0</ele><time>2026-04-30T14:58:33.001Z</time></trkpt><trkpt lat="40.796106953866676" lon="9.515614880962262"><ele>188.0</ele><time>2026-04-30T14:58:34.001Z</time></trkpt><trkpt lat="40.79587609557043" lon="9.516464116841457"><ele>185.0</ele><time>2026-04-30T14:58:35.001Z</time></trkpt><trkpt lat="40.79570255635725" lon="9.516454827663889"><ele>182.0</ele><time>2026-04-30T14:58:36.001Z</time></trkpt><trkpt lat="40.7955247953713" lon="9.516446100352143"><ele>179.0</ele><time>2026-04-30T14:58:37.001Z</time></trkpt><trkpt lat="40.79533965447363" lon="9.51643440743217"><ele>181.0</ele><time>2026-04-30T14:58:38.001Z</time></trkpt><trkpt lat="40.79515315713068" lon="9.516440761848957"><ele>183.0</ele><time>2026-04-30T14:58:39.001Z</time></trkpt><trkpt lat="40.794960311277876" lon="9.516455627507732"><ele>185.0</ele><time>2026-04-30T14:58:40.001Z</time></trkpt><trkpt lat="40.794771215456834" lon="9.516475286107138"><ele>185.0</ele><time>2026-04-30T14:58:41.001Z</time></trkpt><trkpt lat="40.79457768843981" lon="9.516493168852795"><ele>185.0</ele><time>2026-04-30T14:58:42.001Z</time></trkpt><trkpt lat="40.794386296029785" lon="9.516509440928427"><ele>185.0</ele><time>2026-04-30T14:58:43.001Z</time></trkpt><trkpt lat="40.79420142935737" lon="9.516526671884595"><ele>186.66666666666666</ele><time>2026-04-30T14:58:44.001Z</time></trkpt><trkpt lat="40.794018342820394" lon="9.516542979165763"><ele>188.33333333333334</ele><time>2026-04-30T14:58:45.001Z</time></trkpt><trkpt lat="40.793832822637405" lon="9.516555636014852"><ele>190.0</ele><time>2026-04-30T14:58:46.001Z</time></trkpt><trkpt lat="40.79364443650218" lon="9.516558420659683"><ele>192.66666666666669</ele><time>2026-04-30T14:58:47.001Z</time></trkpt><trkpt lat="40.79345035198787" lon="9.516551942941996"><ele>195.33333333333334</ele><time>2026-04-30T14:58:48.001Z</time></trkpt><trkpt lat="40.79325407030542" lon="9.516539646873756"><ele>198.0</ele><time>2026-04-30T14:58:49.001Z</time></trkpt><trkpt lat="40.793056110983116" lon="9.516525247032305"><ele>198.0</ele><time>2026-04-30T14:58:50.001Z</time></trkpt><trkpt lat="40.79285725364025" lon="9.51651024980566"><ele>198.0</ele><time>2026-04-30T14:58:51.001Z</time></trkpt><trkpt lat="40.79265418340224" lon="9.516495937349832"><ele>198.0</ele><time>2026-04-30T14:58:52.001Z</time></trkpt><trkpt lat="40.79244706569982" lon="9.51648174611058"><ele>198.66666666666669</ele><time>2026-04-30T14:58:53.001Z</time></trkpt><trkpt lat="40.792241116418694" lon="9.516462834673119"><ele>199.33333333333334</ele><time>2026-04-30T14:58:54.001Z</time></trkpt><trkpt lat="40.792035756245085" lon="9.51644714452099"><ele>200.0</ele><time>2026-04-30T14:58:55.001Z</time></trkpt><trkpt lat="40.7918298852826" lon="9.516435811838946"><ele>200.33333333333334</ele><time>2026-04-30T14:58:56.001Z</time></trkpt><trkpt lat="40.791622201004" lon="9.516426125476968"><ele>200.66666666666669</ele><time>2026-04-30T14:58:57.001Z</time></trkpt><trkpt lat="40.79141364584332" lon="9.516422167197668"><ele>201.0</ele><time>2026-04-30T14:58:58.001Z</time></trkpt><trkpt lat="40.791205652510605" lon="9.516420838444809"><ele>204.66666666666669</ele><time>2026-04-30T14:58:59.001Z</time></trkpt><trkpt lat="40.7910001278225" lon="9.516416764147714"><ele>208.33333333333334</ele><time>2026-04-30T14:59:00.001Z</time></trkpt><trkpt lat="40.79079560957712" lon="9.516416590768149"><ele>212.0</ele><time>2026-04-30T14:59:01.001Z</time></trkpt><trkpt lat="40.790588699418585" lon="9.516417857695043"><ele>212.0</ele><time>2026-04-30T14:59:02.001Z</time></trkpt><trkpt lat="40.79038717147129" lon="9.516428200981364"><ele>212.0</ele><time>2026-04-30T14:59:03.001Z</time></trkpt><trkpt lat="40.790187590809666" lon="9.516454735717632"><ele>212.0</ele><time>2026-04-30T14:59:04.001Z</time></trkpt><trkpt lat="40.78998717565682" lon="9.516493507610557"><ele>216.0</ele><time>2026-04-30T14:59:05.001Z</time></trkpt><trkpt lat="40.78978874798915" lon="9.51653876129177"><ele>220.0</ele><time>2026-04-30T14:59:06.001Z</time></trkpt><trkpt lat="40.78958847500014" lon="9.516585902030847"><ele>224.0</ele><time>2026-04-30T14:59:07.001Z</time></trkpt><trkpt lat="40.789388177188904" lon="9.51663365016858"><ele>228.0</ele><time>2026-04-30T14:59:08.001Z</time></trkpt><trkpt lat="40.78919125246721" lon="9.516682210417349"><ele>232.0</ele><time>2026-04-30T14:59:09.001Z</time></trkpt><trkpt lat="40.78899192663086" lon="9.51673247172764"><ele>236.0</ele><time>2026-04-30T14:59:10.001Z</time></trkpt><trkpt lat="40.78879359295817" lon="9.516781438090515"><ele>236.0</ele><time>2026-04-30T14:59:11.001Z</time></trkpt><trkpt lat="40.78859556876712" lon="9.516828886464797"><ele>236.0</ele><time>2026-04-30T14:59:12.001Z</time></trkpt><trkpt lat="40.788397881031536" lon="9.516874757156783"><ele>236.0</ele><time>2026-04-30T14:59:13.001Z</time></trkpt><trkpt lat="40.78819991387914" lon="9.516919669862233"><ele>242.0</ele><time>2026-04-30T14:59:14.001Z</time></trkpt><trkpt lat="40.78800002883194" lon="9.516963484739847"><ele>248.0</ele><time>2026-04-30T14:59:15.001Z</time></trkpt><trkpt lat="40.78780011462254" lon="9.517010190123855"><ele>254.0</ele><time>2026-04-30T14:59:16.001Z</time></trkpt><trkpt lat="40.78760180173449" lon="9.517055400516208"><ele>255.0</ele><time>2026-04-30T14:59:17.001Z</time></trkpt><trkpt lat="40.78741256679498" lon="9.517097006555773"><ele>256.0</ele><time>2026-04-30T14:59:18.001Z</time></trkpt><trkpt lat="40.78724098795462" lon="9.517138235591142"><ele>257.0</ele><time>2026-04-30T14:59:19.001Z</time></trkpt><trkpt lat="40.78706997006302" lon="9.517165582439096"><ele>257.0</ele><time>2026-04-30T14:59:20.001Z</time></trkpt><trkpt lat="40.78689478697009" lon="9.51718782108194"><ele>257.0</ele><time>2026-04-30T14:59:21.001Z</time></trkpt><trkpt lat="40.786723715049106" lon="9.517197246228113"><ele>257.0</ele><time>2026-04-30T14:59:22.001Z</time></trkpt><trkpt lat="40.786554469258604" lon="9.51719234013652"><ele>255.33333333333334</ele><time>2026-04-30T14:59:23.001Z</time></trkpt><trkpt lat="40.786398658192304" lon="9.51717554206088"><ele>253.66666666666669</ele><time>2026-04-30T14:59:24.001Z</time></trkpt><trkpt lat="40.78624038475509" lon="9.51715069117053"><ele>252.0</ele><time>2026-04-30T14:59:25.001Z</time></trkpt><trkpt lat="40.78607990919212" lon="9.517113947513614"><ele>250.33333333333331</ele><time>2026-04-30T14:59:26.001Z</time></trkpt><trkpt lat="40.785920913245214" lon="9.517067176278648"><ele>248.66666666666666</ele><time>2026-04-30T14:59:27.001Z</time></trkpt><trkpt lat="40.78575632758475" lon="9.517007055101088"><ele>247.0</ele><time>2026-04-30T14:59:28.001Z</time></trkpt><trkpt lat="40.78559425568813" lon="9.51693633394162"><ele>247.0</ele><time>2026-04-30T14:59:29.001Z</time></trkpt><trkpt lat="40.78542843564463" lon="9.516854738268568"><ele>247.0</ele><time>2026-04-30T14:59:30.001Z</time></trkpt><trkpt lat="40.78525591428817" lon="9.516764258669198"><ele>247.0</ele><time>2026-04-30T14:59:31.001Z</time></trkpt><trkpt lat="40.78508799926699" lon="9.516663193343396"><ele>243.66666666666666</ele><time>2026-04-30T14:59:32.001Z</time></trkpt><trkpt lat="40.78492110327813" lon="9.516541665184569"><ele>240.33333333333331</ele><time>2026-04-30T14:59:33.001Z</time></trkpt><trkpt lat="40.78476021957312" lon="9.51641542034473"><ele>237.0</ele><time>2026-04-30T14:59:34.001Z</time></trkpt><trkpt lat="40.78459669587083" lon="9.516293466499203"><ele>238.0</ele><time>2026-04-30T14:59:35.001Z</time></trkpt><trkpt lat="40.78442107967373" lon="9.516179114697408"><ele>239.0</ele><time>2026-04-30T14:59:36.001Z</time></trkpt><trkpt lat="40.78424175757489" lon="9.516072180020474"><ele>240.0</ele><time>2026-04-30T14:59:37.001Z</time></trkpt><trkpt lat="40.78405745006966" lon="9.515979122986495"><ele>240.0</ele><time>2026-04-30T14:59:38.001Z</time></trkpt><trkpt lat="40.78387608422764" lon="9.515899476791823"><ele>240.0</ele><time>2026-04-30T14:59:39.001Z</time></trkpt><trkpt lat="40.78368979390865" lon="9.515824842835098"><ele>240.0</ele><time>2026-04-30T14:59:40.001Z</time></trkpt><trkpt lat="40.78349825341804" lon="9.515759980299164"><ele>235.0</ele><time>2026-04-30T14:59:41.001Z</time></trkpt><trkpt lat="40.78331174114575" lon="9.515705632005668"><ele>230.0</ele><time>2026-04-30T14:59:42.001Z</time></trkpt><trkpt lat="40.783124586504705" lon="9.515672634847862"><ele>225.0</ele><time>2026-04-30T14:59:43.001Z</time></trkpt><trkpt lat="40.78293459492338" lon="9.515648135535507"><ele>225.0</ele><time>2026-04-30T14:59:44.001Z</time></trkpt><trkpt lat="40.78274427272088" lon="9.515627989760574"><ele>225.0</ele><time>2026-04-30T14:59:45.001Z</time></trkpt><trkpt lat="40.78255430064851" lon="9.515616521598664"><ele>225.0</ele><time>2026-04-30T14:59:46.001Z</time></trkpt><trkpt lat="40.782361045986185" lon="9.515627062450932"><ele>223.0</ele><time>2026-04-30T14:59:47.001Z</time></trkpt><trkpt lat="40.782164423925515" lon="9.51564576025499"><ele>221.0</ele><time>2026-04-30T14:59:48.001Z</time></trkpt><trkpt lat="40.78196596146979" lon="9.515673986268995"><ele>219.0</ele><time>2026-04-30T14:59:49.001Z</time></trkpt><trkpt lat="40.781768116690955" lon="9.51571581487045"><ele>216.66666666666669</ele><time>2026-04-30T14:59:50.001Z</time></trkpt><trkpt lat="40.78156939111018" lon="9.515772838400617"><ele>214.33333333333334</ele><time>2026-04-30T14:59:51.001Z</time></trkpt><trkpt lat="40.78136943180334" lon="9.515842712288524"><ele>212.0</ele><time>2026-04-30T14:59:52.001Z</time></trkpt><trkpt lat="40.781168086571526" lon="9.515922773589061"><ele>208.66666666666669</ele><time>2026-04-30T14:59:53.001Z</time></trkpt><trkpt lat="40.780966406864046" lon="9.51600741959716"><ele>205.33333333333331</ele><time>2026-04-30T14:59:54.001Z</time></trkpt><trkpt lat="40.78075737991381" lon="9.51609859952824"><ele>202.0</ele><time>2026-04-30T14:59:55.001Z</time></trkpt><trkpt lat="40.78054803330184" lon="9.516189682083938"><ele>201.0</ele><time>2026-04-30T14:59:56.001Z</time></trkpt><trkpt lat="40.78033265140306" lon="9.516285182862179"><ele>200.0</ele><time>2026-04-30T14:59:57.001Z</time></trkpt><trkpt lat="40.78011670861978" lon="9.516380713890939"><ele>195.5</ele><time>2026-04-30T14:59:58.001Z</time></trkpt><trkpt lat="40.77989539915335" lon="9.516477945640274"><ele>191.0</ele><time>2026-04-30T14:59:59.001Z</time></trkpt><trkpt lat="40.7796709795675" lon="9.516575826694188"><ele>191.0</ele><time>2026-04-30T15:00:00.001Z</time></trkpt><trkpt lat="40.779446452997654" lon="9.516674243905346"><ele>191.0</ele><time>2026-04-30T15:00:01.001Z</time></trkpt><trkpt lat="40.77922465089652" lon="9.51677138770887"><ele>188.0</ele><time>2026-04-30T15:00:02.001Z</time></trkpt><trkpt lat="40.77900390614619" lon="9.516866455150097"><ele>185.0</ele><time>2026-04-30T15:00:03.001Z</time></trkpt><trkpt lat="40.778781169068544" lon="9.516962398439665"><ele>185.0</ele><time>2026-04-30T15:00:04.001Z</time></trkpt><trkpt lat="40.77855706175767" lon="9.517062178329008"><ele>185.0</ele><time>2026-04-30T15:00:05.001Z</time></trkpt><trkpt lat="40.77833464224795" lon="9.517165445349585"><ele>188.5</ele><time>2026-04-30T15:00:06.001Z</time></trkpt><trkpt lat="40.77811451914675" lon="9.51727340629827"><ele>192.0</ele><time>2026-04-30T15:00:07.001Z</time></trkpt><trkpt lat="40.77789662194843" lon="9.517380144493321"><ele>195.5</ele><time>2026-04-30T15:00:08.001Z</time></trkpt><trkpt lat="40.777675586300255" lon="9.517490697636017"><ele>199.0</ele><time>2026-04-30T15:00:09.001Z</time></trkpt><trkpt lat="40.77745572130781" lon="9.517602118979205"><ele>199.0</ele><time>2026-04-30T15:00:10.001Z</time></trkpt><trkpt lat="40.777236690951064" lon="9.517711984349434"><ele>199.0</ele><time>2026-04-30T15:00:11.001Z</time></trkpt><trkpt lat="40.77701750849103" lon="9.517827242032734"><ele>196.0</ele><time>2026-04-30T15:00:12.001Z</time></trkpt><trkpt lat="40.7768018760291" lon="9.517943339460784"><ele>193.0</ele><time>2026-04-30T15:00:13.001Z</time></trkpt><trkpt lat="40.77657868726593" lon="9.518063300860545"><ele>193.0</ele><time>2026-04-30T15:00:14.001Z</time></trkpt><trkpt lat="40.776358800799954" lon="9.518178602362251"><ele>193.0</ele><time>2026-04-30T15:00:15.001Z</time></trkpt><trkpt lat="40.77614248373513" lon="9.51829241692952"><ele>192.0</ele><time>2026-04-30T15:00:16.001Z</time></trkpt><trkpt lat="40.77591113722175" lon="9.518426829902683"><ele>191.0</ele><time>2026-04-30T15:00:17.001Z</time></trkpt><trkpt lat="40.775695391675384" lon="9.51854760645548"><ele>191.0</ele><time>2026-04-30T15:00:18.001Z</time></trkpt><trkpt lat="40.77547914050164" lon="9.518663578590184"><ele>191.0</ele><time>2026-04-30T15:00:19.001Z</time></trkpt><trkpt lat="40.775265046312974" lon="9.518779449497458"><ele>190.33333333333331</ele><time>2026-04-30T15:00:20.001Z</time></trkpt><trkpt lat="40.77506284083811" lon="9.518899953557773"><ele>189.66666666666666</ele><time>2026-04-30T15:00:21.001Z</time></trkpt><trkpt lat="40.77486673324881" lon="9.519028435983442"><ele>189.0</ele><time>2026-04-30T15:00:22.001Z</time></trkpt><trkpt lat="40.7746678436604" lon="9.519165753757838"><ele>189.0</ele><time>2026-04-30T15:00:23.001Z</time></trkpt><trkpt lat="40.77447197999339" lon="9.519292139353647"><ele>189.0</ele><time>2026-04-30T15:00:24.001Z</time></trkpt><trkpt lat="40.77428116244997" lon="9.51941750907731"><ele>189.0</ele><time>2026-04-30T15:00:25.001Z</time></trkpt><trkpt lat="40.774096514854335" lon="9.51953923962268"><ele>189.33333333333334</ele><time>2026-04-30T15:00:26.001Z</time></trkpt><trkpt lat="40.77391971351434" lon="9.519643835038126"><ele>189.66666666666669</ele><time>2026-04-30T15:00:27.001Z</time></trkpt><trkpt lat="40.773748880732064" lon="9.519729234298733"><ele>190.0</ele><time>2026-04-30T15:00:28.001Z</time></trkpt><trkpt lat="40.77357775904222" lon="9.519795439448258"><ele>189.33333333333334</ele><time>2026-04-30T15:00:29.001Z</time></trkpt><trkpt lat="40.77340138542835" lon="9.519839567704679"><ele>188.66666666666666</ele><time>2026-04-30T15:00:30.001Z</time></trkpt><trkpt lat="40.77322158863379" lon="9.51987171783135"><ele>188.0</ele><time>2026-04-30T15:00:31.001Z</time></trkpt><trkpt lat="40.773024546820515" lon="9.519896890863455"><ele>188.0</ele><time>2026-04-30T15:00:32.001Z</time></trkpt><trkpt lat="40.77283125720344" lon="9.519912893028383"><ele>188.0</ele><time>2026-04-30T15:00:33.001Z</time></trkpt><trkpt lat="40.77264628282819" lon="9.519930733128675"><ele>188.0</ele><time>2026-04-30T15:00:34.001Z</time></trkpt><trkpt lat="40.77247682107722" lon="9.519949242811515"><ele>188.33333333333331</ele><time>2026-04-30T15:00:35.001Z</time></trkpt><trkpt lat="40.772313722672024" lon="9.519976430532612"><ele>188.66666666666666</ele><time>2026-04-30T15:00:36.001Z</time></trkpt><trkpt lat="40.77216175529977" lon="9.520018683810456"><ele>189.0</ele><time>2026-04-30T15:00:37.001Z</time></trkpt><trkpt lat="40.77200951028704" lon="9.520077165568935"><ele>189.0</ele><time>2026-04-30T15:00:38.001Z</time></trkpt><trkpt lat="40.77187054512533" lon="9.520135485545163"><ele>189.0</ele><time>2026-04-30T15:00:39.001Z</time></trkpt><trkpt lat="40.77175529775801" lon="9.520191999125712"><ele>189.0</ele><time>2026-04-30T15:00:40.001Z</time></trkpt><trkpt lat="40.771657481074" lon="9.520240005629129"><ele>189.0</ele><time>2026-04-30T15:00:41.001Z</time></trkpt><trkpt lat="40.77155314643681" lon="9.52029873215566"><ele>188.25</ele><time>2026-04-30T15:00:42.001Z</time></trkpt><trkpt lat="40.77144248152935" lon="9.520349176547212"><ele>187.5</ele><time>2026-04-30T15:00:43.001Z</time></trkpt><trkpt lat="40.77132879333434" lon="9.520402185117511"><ele>186.75</ele><time>2026-04-30T15:00:44.001Z</time></trkpt><trkpt lat="40.77122780223637" lon="9.520454172570355"><ele>186.0</ele><time>2026-04-30T15:00:45.001Z</time></trkpt><trkpt lat="40.7711182544616" lon="9.5205117056128"><ele>184.25</ele><time>2026-04-30T15:00:46.001Z</time></trkpt><trkpt lat="40.77100862122947" lon="9.520586481002782"><ele>182.5</ele><time>2026-04-30T15:00:47.002Z</time></trkpt><trkpt lat="40.77090587351888" lon="9.520655516721318"><ele>180.75</ele><time>2026-04-30T15:00:48.002Z</time></trkpt><trkpt lat="40.770811191692005" lon="9.520734920345781"><ele>179.0</ele><time>2026-04-30T15:00:49.002Z</time></trkpt><trkpt lat="40.770712053819224" lon="9.520814091744649"><ele>179.0</ele><time>2026-04-30T15:00:50.002Z</time></trkpt><trkpt lat="40.77061492450227" lon="9.52088616535672"><ele>179.0</ele><time>2026-04-30T15:00:51.002Z</time></trkpt><trkpt lat="40.770510215555376" lon="9.520951554451878"><ele>179.0</ele><time>2026-04-30T15:00:52.002Z</time></trkpt><trkpt lat="40.77039126158201" lon="9.52102490963017"><ele>179.0</ele><time>2026-04-30T15:00:53.002Z</time></trkpt><trkpt lat="40.77027354623698" lon="9.521087209033123"><ele>178.75</ele><time>2026-04-30T15:00:54.002Z</time></trkpt><trkpt lat="40.770153328657734" lon="9.521136328687835"><ele>178.5</ele><time>2026-04-30T15:00:55.002Z</time></trkpt><trkpt lat="40.77003700462679" lon="9.521183695988448"><ele>178.25</ele><time>2026-04-30T15:00:56.002Z</time></trkpt><trkpt lat="40.769915288172385" lon="9.521238544693462"><ele>178.0</ele><time>2026-04-30T15:00:57.002Z</time></trkpt><trkpt lat="40.76979676250864" lon="9.5212956917523"><ele>176.75</ele><time>2026-04-30T15:00:58.002Z</time></trkpt><trkpt lat="40.769688384654145" lon="9.521368603497617"><ele>175.5</ele><time>2026-04-30T15:00:59.002Z</time></trkpt><trkpt lat="40.76958333909582" lon="9.52144494860999"><ele>174.25</ele><time>2026-04-30T15:01:00.002Z</time></trkpt><trkpt lat="40.7694802211237" lon="9.521526072904015"><ele>173.0</ele><time>2026-04-30T15:01:01.002Z</time></trkpt><trkpt lat="40.7693749514473" lon="9.521592281815902"><ele>173.0</ele><time>2026-04-30T15:01:02.002Z</time></trkpt><trkpt lat="40.76926992301177" lon="9.521655358258162"><ele>173.0</ele><time>2026-04-30T15:01:03.002Z</time></trkpt><trkpt lat="40.76916883801746" lon="9.521716299407304"><ele>173.0</ele><time>2026-04-30T15:01:04.002Z</time></trkpt><trkpt lat="40.76906873174211" lon="9.52176078245459"><ele>173.0</ele><time>2026-04-30T15:01:05.002Z</time></trkpt><trkpt lat="40.76896716290798" lon="9.521803350824484"><ele>173.0</ele><time>2026-04-30T15:01:06.002Z</time></trkpt><trkpt lat="40.768871337603315" lon="9.521839401900511"><ele>173.0</ele><time>2026-04-30T15:01:07.002Z</time></trkpt><trkpt lat="40.76877396469486" lon="9.521873672193294"><ele>173.0</ele><time>2026-04-30T15:01:08.002Z</time></trkpt><trkpt lat="40.76867911405465" lon="9.521899417322492"><ele>173.0</ele><time>2026-04-30T15:01:09.002Z</time></trkpt><trkpt lat="40.76858654526841" lon="9.521901023882789"><ele>173.0</ele><time>2026-04-30T15:01:10.002Z</time></trkpt><trkpt lat="40.76849200265795" lon="9.521879222292414"><ele>173.0</ele><time>2026-04-30T15:01:11.002Z</time></trkpt><trkpt lat="40.76839028894054" lon="9.521841315548523"><ele>171.25</ele><time>2026-04-30T15:01:12.002Z</time></trkpt><trkpt lat="40.76828250195002" lon="9.52179735876913"><ele>169.5</ele><time>2026-04-30T15:01:13.002Z</time></trkpt><trkpt lat="40.76818104718925" lon="9.52174515875295"><ele>167.75</ele><time>2026-04-30T15:01:14.002Z</time></trkpt><trkpt lat="40.76807694257639" lon="9.52168430579358"><ele>166.0</ele><time>2026-04-30T15:01:15.002Z</time></trkpt><trkpt lat="40.767976307689345" lon="9.521598439861444"><ele>166.0</ele><time>2026-04-30T15:01:16.002Z</time></trkpt><trkpt lat="40.767879982196725" lon="9.521502201291295"><ele>166.0</ele><time>2026-04-30T15:01:17.002Z</time></trkpt><trkpt lat="40.76779934078994" lon="9.521400643088905"><ele>166.0</ele><time>2026-04-30T15:01:18.002Z</time></trkpt><trkpt lat="40.767717473261705" lon="9.521324294203076"><ele>166.0</ele><time>2026-04-30T15:01:19.002Z</time></trkpt><trkpt lat="40.76761434295667" lon="9.521247202306975"><ele>164.75</ele><time>2026-04-30T15:01:20.002Z</time></trkpt><trkpt lat="40.76749673045862" lon="9.521157419083309"><ele>163.5</ele><time>2026-04-30T15:01:21.002Z</time></trkpt><trkpt lat="40.76738178394075" lon="9.52107902474231"><ele>162.25</ele><time>2026-04-30T15:01:22.002Z</time></trkpt><trkpt lat="40.7672767082424" lon="9.521033982187369"><ele>161.0</ele><time>2026-04-30T15:01:23.002Z</time></trkpt><trkpt lat="40.767173546988154" lon="9.520998080685207"><ele>161.0</ele><time>2026-04-30T15:01:24.002Z</time></trkpt><trkpt lat="40.76706745866253" lon="9.520972975899952"><ele>161.0</ele><time>2026-04-30T15:01:25.002Z</time></trkpt><trkpt lat="40.76694964443259" lon="9.520963608217794"><ele>161.0</ele><time>2026-04-30T15:01:26.002Z</time></trkpt><trkpt lat="40.76682662343774" lon="9.520972135479978"><ele>161.0</ele><time>2026-04-30T15:01:27.002Z</time></trkpt><trkpt lat="40.76671169245541" lon="9.52099002323906"><ele>161.0</ele><time>2026-04-30T15:01:28.002Z</time></trkpt><trkpt lat="40.76661854842988" lon="9.520993443122123"><ele>161.0</ele><time>2026-04-30T15:01:29.002Z</time></trkpt><trkpt lat="40.766495852900654" lon="9.520966936712254"><ele>161.0</ele><time>2026-04-30T15:01:30.002Z</time></trkpt><trkpt lat="40.766404461889984" lon="9.520977998463371"><ele>161.0</ele><time>2026-04-30T15:01:31.002Z</time></trkpt><trkpt lat="40.766321578146524" lon="9.520992354143296"><ele>161.0</ele><time>2026-04-30T15:01:32.002Z</time></trkpt><trkpt lat="40.76624656364965" lon="9.521003746224334"><ele>161.0</ele><time>2026-04-30T15:01:33.002Z</time></trkpt><trkpt lat="40.76617857236269" lon="9.521013895519632"><ele>161.0</ele><time>2026-04-30T15:01:34.002Z</time></trkpt><trkpt lat="40.76610353438794" lon="9.52102516446638"><ele>161.0</ele><time>2026-04-30T15:01:35.002Z</time></trkpt><trkpt lat="40.766031196034014" lon="9.521026946486364"><ele>161.0</ele><time>2026-04-30T15:01:36.002Z</time></trkpt><trkpt lat="40.76596747941591" lon="9.521030584355357"><ele>161.0</ele><time>2026-04-30T15:01:37.002Z</time></trkpt><trkpt lat="40.765853061279486" lon="9.521040881938848"><ele>161.0</ele><time>2026-04-30T15:01:39.002Z</time></trkpt><trkpt lat="40.765749056662074" lon="9.521061040858717"><ele>161.4</ele><time>2026-04-30T15:01:41.002Z</time></trkpt><trkpt lat="40.76565910688663" lon="9.521085681929936"><ele>161.8</ele><time>2026-04-30T15:01:43.002Z</time></trkpt><trkpt lat="40.76556863616163" lon="9.521111725564651"><ele>162.20000000000002</ele><time>2026-04-30T15:01:45.002Z</time></trkpt><trkpt lat="40.76548342123887" lon="9.52112366975951"><ele>162.60000000000002</ele><time>2026-04-30T15:01:47.002Z</time></trkpt><trkpt lat="40.76537011324584" lon="9.521155078743151"><ele>163.0</ele><time>2026-04-30T15:01:49.002Z</time></trkpt><trkpt lat="40.76529004169674" lon="9.521149789586513"><ele>163.0</ele><time>2026-04-30T15:01:50.002Z</time></trkpt><trkpt lat="40.76520923115463" lon="9.521198768694958"><ele>163.0</ele><time>2026-04-30T15:01:51.002Z</time></trkpt><trkpt lat="40.765102933252535" lon="9.521211632585828"><ele>163.0</ele><time>2026-04-30T15:01:52.002Z</time></trkpt><trkpt lat="40.76497580563426" lon="9.521266710943918"><ele>163.0</ele><time>2026-04-30T15:01:53.002Z</time></trkpt><trkpt lat="40.76488076020945" lon="9.521324640311988"><ele>163.0</ele><time>2026-04-30T15:01:54.002Z</time></trkpt><trkpt lat="40.764789087308145" lon="9.521387942399219"><ele>162.60000000000002</ele><time>2026-04-30T15:01:55.002Z</time></trkpt><trkpt lat="40.764723350035446" lon="9.52146323944251"><ele>162.20000000000002</ele><time>2026-04-30T15:01:56.002Z</time></trkpt><trkpt lat="40.76464427483104" lon="9.52152684608262"><ele>161.8</ele><time>2026-04-30T15:01:57.002Z</time></trkpt><trkpt lat="40.76457726336819" lon="9.521595219676774"><ele>161.4</ele><time>2026-04-30T15:01:58.002Z</time></trkpt><trkpt lat="40.764455768203185" lon="9.521664976695858"><ele>161.0</ele><time>2026-04-30T15:02:00.002Z</time></trkpt><trkpt lat="40.764379818244585" lon="9.521714495798914"><ele>160.75</ele><time>2026-04-30T15:02:01.002Z</time></trkpt><trkpt lat="40.764287078343436" lon="9.521768933474485"><ele>160.5</ele><time>2026-04-30T15:02:02.002Z</time></trkpt><trkpt lat="40.764186365955695" lon="9.521843940928772"><ele>160.25</ele><time>2026-04-30T15:02:03.002Z</time></trkpt><trkpt lat="40.76407104869729" lon="9.521903166332125"><ele>160.0</ele><time>2026-04-30T15:02:04.002Z</time></trkpt><trkpt lat="40.76394817640881" lon="9.521954833957313"><ele>160.0</ele><time>2026-04-30T15:02:05.002Z</time></trkpt><trkpt lat="40.76382769771601" lon="9.521995606009824"><ele>160.0</ele><time>2026-04-30T15:02:06.002Z</time></trkpt><trkpt lat="40.76370586558532" lon="9.522031256462885"><ele>160.0</ele><time>2026-04-30T15:02:07.002Z</time></trkpt><trkpt lat="40.763571497349965" lon="9.522076227494647"><ele>160.0</ele><time>2026-04-30T15:02:08.002Z</time></trkpt><trkpt lat="40.76343934260317" lon="9.522119934135958"><ele>160.0</ele><time>2026-04-30T15:02:09.002Z</time></trkpt><trkpt lat="40.76331661270459" lon="9.522178018393669"><ele>160.0</ele><time>2026-04-30T15:02:10.002Z</time></trkpt><trkpt lat="40.76320334055141" lon="9.522249811268695"><ele>160.0</ele><time>2026-04-30T15:02:11.002Z</time></trkpt><trkpt lat="40.76310129953394" lon="9.522330411750215"><ele>160.0</ele><time>2026-04-30T15:02:12.002Z</time></trkpt><trkpt lat="40.763001309272006" lon="9.522419973188335"><ele>160.0</ele><time>2026-04-30T15:02:13.002Z</time></trkpt><trkpt lat="40.762911122624494" lon="9.522500933364304"><ele>160.0</ele><time>2026-04-30T15:02:14.002Z</time></trkpt><trkpt lat="40.76283181961913" lon="9.52257252665436"><ele>160.0</ele><time>2026-04-30T15:02:15.002Z</time></trkpt><trkpt lat="40.76275825116936" lon="9.52262414355358"><ele>160.0</ele><time>2026-04-30T15:02:16.002Z</time></trkpt><trkpt lat="40.762690930266665" lon="9.522681955688213"><ele>160.0</ele><time>2026-04-30T15:02:17.002Z</time></trkpt><trkpt lat="40.76262865435796" lon="9.52271212471414"><ele>160.0</ele><time>2026-04-30T15:02:18.002Z</time></trkpt><trkpt lat="40.762510019012076" lon="9.522765427440635"><ele>160.83333333333334</ele><time>2026-04-30T15:02:20.002Z</time></trkpt><trkpt lat="40.76244234258016" lon="9.522799460324256"><ele>161.66666666666669</ele><time>2026-04-30T15:02:21.002Z</time></trkpt><trkpt lat="40.76236489517095" lon="9.522836210390864"><ele>162.5</ele><time>2026-04-30T15:02:22.002Z</time></trkpt><trkpt lat="40.76228788867033" lon="9.522863224412921"><ele>163.33333333333334</ele><time>2026-04-30T15:02:23.002Z</time></trkpt><trkpt lat="40.76219779795261" lon="9.52290022316606"><ele>164.16666666666666</ele><time>2026-04-30T15:02:24.002Z</time></trkpt><trkpt lat="40.76210646024681" lon="9.522941529822285"><ele>165.0</ele><time>2026-04-30T15:02:25.002Z</time></trkpt><trkpt lat="40.76201357472905" lon="9.522979866332207"><ele>165.0</ele><time>2026-04-30T15:02:26.002Z</time></trkpt><trkpt lat="40.7619216807736" lon="9.523015706311835"><ele>165.0</ele><time>2026-04-30T15:02:27.002Z</time></trkpt><trkpt lat="40.76183245651994" lon="9.523046269953177"><ele>165.0</ele><time>2026-04-30T15:02:28.002Z</time></trkpt><trkpt lat="40.76174127483354" lon="9.523076887871685"><ele>165.0</ele><time>2026-04-30T15:02:29.002Z</time></trkpt><trkpt lat="40.76164239874759" lon="9.523111605660732"><ele>165.0</ele><time>2026-04-30T15:02:30.002Z</time></trkpt><trkpt lat="40.76153766798379" lon="9.523146553578563"><ele>165.75</ele><time>2026-04-30T15:02:31.002Z</time></trkpt><trkpt lat="40.761424441337226" lon="9.523182520920985"><ele>166.5</ele><time>2026-04-30T15:02:32.002Z</time></trkpt><trkpt lat="40.76130853178682" lon="9.523215816561352"><ele>167.25</ele><time>2026-04-30T15:02:33.002Z</time></trkpt><trkpt lat="40.76118579758821" lon="9.523246989861448"><ele>168.0</ele><time>2026-04-30T15:02:34.002Z</time></trkpt><trkpt lat="40.7610607153671" lon="9.523261788856502"><ele>169.0</ele><time>2026-04-30T15:02:35.002Z</time></trkpt><trkpt lat="40.76092866237947" lon="9.523259997814453"><ele>170.0</ele><time>2026-04-30T15:02:36.002Z</time></trkpt><trkpt lat="40.760795706019834" lon="9.52323501894227"><ele>171.0</ele><time>2026-04-30T15:02:37.002Z</time></trkpt><trkpt lat="40.76066552246958" lon="9.52319002074088"><ele>172.0</ele><time>2026-04-30T15:02:38.002Z</time></trkpt><trkpt lat="40.760534658660056" lon="9.523118475371142"><ele>172.0</ele><time>2026-04-30T15:02:39.002Z</time></trkpt><trkpt lat="40.76039156483943" lon="9.523037604903873"><ele>172.0</ele><time>2026-04-30T15:02:40.002Z</time></trkpt><trkpt lat="40.76025016517378" lon="9.52295504525628"><ele>172.0</ele><time>2026-04-30T15:02:41.002Z</time></trkpt><trkpt lat="40.76011197432431" lon="9.522865447054054"><ele>173.66666666666669</ele><time>2026-04-30T15:02:42.002Z</time></trkpt><trkpt lat="40.75996810686596" lon="9.52277388177191"><ele>175.33333333333334</ele><time>2026-04-30T15:02:43.002Z</time></trkpt><trkpt lat="40.75982056482016" lon="9.522682585884178"><ele>177.0</ele><time>2026-04-30T15:02:44.002Z</time></trkpt><trkpt lat="40.75965974847492" lon="9.522590364018658"><ele>177.0</ele><time>2026-04-30T15:02:45.002Z</time></trkpt><trkpt lat="40.75948683600612" lon="9.522501647688433"><ele>177.0</ele><time>2026-04-30T15:02:46.002Z</time></trkpt><trkpt lat="40.75930789283778" lon="9.522412051709997"><ele>177.0</ele><time>2026-04-30T15:02:47.002Z</time></trkpt><trkpt lat="40.75912449700594" lon="9.52232065219088"><ele>176.33333333333334</ele><time>2026-04-30T15:02:48.002Z</time></trkpt><trkpt lat="40.75892782699548" lon="9.522239980926056"><ele>175.66666666666669</ele><time>2026-04-30T15:02:49.002Z</time></trkpt><trkpt lat="40.75872847980258" lon="9.522164993806808"><ele>175.0</ele><time>2026-04-30T15:02:50.002Z</time></trkpt><trkpt lat="40.758528452563226" lon="9.522085307596548"><ele>174.0</ele><time>2026-04-30T15:02:51.002Z</time></trkpt><trkpt lat="40.758325737345565" lon="9.522004592880378"><ele>173.0</ele><time>2026-04-30T15:02:52.002Z</time></trkpt><trkpt lat="40.758127554897534" lon="9.521922664534177"><ele>172.0</ele><time>2026-04-30T15:02:53.002Z</time></trkpt><trkpt lat="40.757934820072954" lon="9.521836422408354"><ele>172.0</ele><time>2026-04-30T15:02:54.002Z</time></trkpt><trkpt lat="40.75773425668928" lon="9.521759431485629"><ele>172.0</ele><time>2026-04-30T15:02:55.002Z</time></trkpt><trkpt lat="40.7575362718588" lon="9.52168548748069"><ele>172.0</ele><time>2026-04-30T15:02:56.002Z</time></trkpt><trkpt lat="40.75734650507105" lon="9.521618491163283"><ele>171.33333333333334</ele><time>2026-04-30T15:02:57.002Z</time></trkpt><trkpt lat="40.75716161197585" lon="9.52153265809679"><ele>170.66666666666666</ele><time>2026-04-30T15:02:58.002Z</time></trkpt><trkpt lat="40.756977898177574" lon="9.52145732173312"><ele>170.0</ele><time>2026-04-30T15:02:59.002Z</time></trkpt><trkpt lat="40.75680190925041" lon="9.521391387580902"><ele>169.0</ele><time>2026-04-30T15:03:00.002Z</time></trkpt><trkpt lat="40.75664172260645" lon="9.521325296300915"><ele>168.0</ele><time>2026-04-30T15:03:01.002Z</time></trkpt><trkpt lat="40.75647798193313" lon="9.521271642049626"><ele>167.0</ele><time>2026-04-30T15:03:02.002Z</time></trkpt><trkpt lat="40.756314152273454" lon="9.521232846015835"><ele>167.33333333333331</ele><time>2026-04-30T15:03:03.002Z</time></trkpt><trkpt lat="40.75615037591492" lon="9.521203976395668"><ele>167.66666666666666</ele><time>2026-04-30T15:03:04.002Z</time></trkpt><trkpt lat="40.75598667199938" lon="9.521193358473264"><ele>168.0</ele><time>2026-04-30T15:03:05.002Z</time></trkpt><trkpt lat="40.755827653081525" lon="9.521204257407199"><ele>168.33333333333334</ele><time>2026-04-30T15:03:06.002Z</time></trkpt><trkpt lat="40.755658410165864" lon="9.521224977476189"><ele>168.66666666666669</ele><time>2026-04-30T15:03:07.002Z</time></trkpt><trkpt lat="40.75548529437483" lon="9.521266408925442"><ele>169.0</ele><time>2026-04-30T15:03:08.002Z</time></trkpt><trkpt lat="40.75530312835186" lon="9.5213145875846"><ele>168.66666666666669</ele><time>2026-04-30T15:03:09.002Z</time></trkpt><trkpt lat="40.7551265221473" lon="9.52136473102903"><ele>168.33333333333334</ele><time>2026-04-30T15:03:10.002Z</time></trkpt><trkpt lat="40.754955604590414" lon="9.52140710665475"><ele>168.0</ele><time>2026-04-30T15:03:11.002Z</time></trkpt><trkpt lat="40.75478876364715" lon="9.521436226783484"><ele>168.0</ele><time>2026-04-30T15:03:12.002Z</time></trkpt><trkpt lat="40.754632379982986" lon="9.521469330340143"><ele>168.0</ele><time>2026-04-30T15:03:13.002Z</time></trkpt><trkpt lat="40.754471161415225" lon="9.521499309165726"><ele>168.0</ele><time>2026-04-30T15:03:14.002Z</time></trkpt><trkpt lat="40.75431818029582" lon="9.521516230975996"><ele>167.66666666666666</ele><time>2026-04-30T15:03:15.002Z</time></trkpt><trkpt lat="40.75416551465891" lon="9.521521907254742"><ele>167.33333333333331</ele><time>2026-04-30T15:03:16.002Z</time></trkpt><trkpt lat="40.75400908415177" lon="9.52150193817652"><ele>167.0</ele><time>2026-04-30T15:03:17.002Z</time></trkpt><trkpt lat="40.75384534277161" lon="9.521468030090368"><ele>167.0</ele><time>2026-04-30T15:03:18.002Z</time></trkpt><trkpt lat="40.75368019796693" lon="9.521408946869318"><ele>167.0</ele><time>2026-04-30T15:03:19.002Z</time></trkpt><trkpt lat="40.753505067855805" lon="9.52135442710878"><ele>167.0</ele><time>2026-04-30T15:03:20.002Z</time></trkpt><trkpt lat="40.753332371388424" lon="9.521299558180091"><ele>166.0</ele><time>2026-04-30T15:03:21.002Z</time></trkpt><trkpt lat="40.75315125851487" lon="9.521243233597028"><ele>165.0</ele><time>2026-04-30T15:03:22.002Z</time></trkpt><trkpt lat="40.75297551153886" lon="9.521183282788774"><ele>164.0</ele><time>2026-04-30T15:03:23.002Z</time></trkpt><trkpt lat="40.752800301881045" lon="9.521119280463155"><ele>162.33333333333331</ele><time>2026-04-30T15:03:24.002Z</time></trkpt><trkpt lat="40.752616642435164" lon="9.521051903167963"><ele>160.66666666666666</ele><time>2026-04-30T15:03:25.002Z</time></trkpt><trkpt lat="40.75244524490799" lon="9.520985970786075"><ele>159.0</ele><time>2026-04-30T15:03:26.002Z</time></trkpt><trkpt lat="40.75228164529381" lon="9.520915906469057"><ele>159.0</ele><time>2026-04-30T15:03:27.002Z</time></trkpt><trkpt lat="40.75213218366684" lon="9.52083866283731"><ele>159.0</ele><time>2026-04-30T15:03:28.002Z</time></trkpt><trkpt lat="40.75198920470866" lon="9.520734787390332"><ele>159.0</ele><time>2026-04-30T15:03:29.002Z</time></trkpt><trkpt lat="40.75183646175063" lon="9.520609247831745"><ele>159.0</ele><time>2026-04-30T15:03:30.002Z</time></trkpt><trkpt lat="40.751689299508584" lon="9.520455744066064"><ele>159.0</ele><time>2026-04-30T15:03:31.002Z</time></trkpt><trkpt lat="40.751541283600496" lon="9.520283443961102"><ele>159.0</ele><time>2026-04-30T15:03:32.002Z</time></trkpt><trkpt lat="40.75138612336542" lon="9.520101673391979"><ele>158.66666666666666</ele><time>2026-04-30T15:03:33.002Z</time></trkpt><trkpt lat="40.75122121094752" lon="9.519925554799137"><ele>158.33333333333331</ele><time>2026-04-30T15:03:34.003Z</time></trkpt><trkpt lat="40.75105704104532" lon="9.519740881395188"><ele>158.0</ele><time>2026-04-30T15:03:35.003Z</time></trkpt><trkpt lat="40.750886639854215" lon="9.519553484750896"><ele>159.33333333333331</ele><time>2026-04-30T15:03:36.003Z</time></trkpt><trkpt lat="40.75071906227725" lon="9.519358967034234"><ele>160.66666666666666</ele><time>2026-04-30T15:03:37.003Z</time></trkpt><trkpt lat="40.750546054027964" lon="9.519172583370281"><ele>162.0</ele><time>2026-04-30T15:03:38.003Z</time></trkpt><trkpt lat="40.75037429702431" lon="9.51898869013828"><ele>162.66666666666666</ele><time>2026-04-30T15:03:39.003Z</time></trkpt><trkpt lat="40.750199853247906" lon="9.518799622808844"><ele>163.33333333333331</ele><time>2026-04-30T15:03:40.003Z</time></trkpt><trkpt lat="40.75002574657578" lon="9.51861694675635"><ele>164.0</ele><time>2026-04-30T15:03:41.003Z</time></trkpt><trkpt lat="40.74985514623591" lon="9.518431663336635"><ele>164.0</ele><time>2026-04-30T15:03:42.003Z</time></trkpt><trkpt lat="40.7496838128676" lon="9.518250848859877"><ele>164.0</ele><time>2026-04-30T15:03:43.003Z</time></trkpt><trkpt lat="40.749509328842514" lon="9.51806529594312"><ele>164.0</ele><time>2026-04-30T15:03:44.003Z</time></trkpt><trkpt lat="40.74934980777512" lon="9.51788547749282"><ele>164.66666666666666</ele><time>2026-04-30T15:03:45.003Z</time></trkpt><trkpt lat="40.749190427593184" lon="9.517709999593833"><ele>165.33333333333334</ele><time>2026-04-30T15:03:46.003Z</time></trkpt><trkpt lat="40.7490258918084" lon="9.51752871084523"><ele>166.0</ele><time>2026-04-30T15:03:47.003Z</time></trkpt><trkpt lat="40.74885014727989" lon="9.51734488275166"><ele>166.0</ele><time>2026-04-30T15:03:48.003Z</time></trkpt><trkpt lat="40.74867918412738" lon="9.51715857154945"><ele>166.0</ele><time>2026-04-30T15:03:49.003Z</time></trkpt><trkpt lat="40.74851498644579" lon="9.516975455746332"><ele>166.0</ele><time>2026-04-30T15:03:50.003Z</time></trkpt><trkpt lat="40.74835317793289" lon="9.516791460092655"><ele>165.33333333333334</ele><time>2026-04-30T15:03:51.003Z</time></trkpt><trkpt lat="40.748198800641234" lon="9.516608946720318"><ele>164.66666666666666</ele><time>2026-04-30T15:03:52.003Z</time></trkpt><trkpt lat="40.74806107949053" lon="9.51641710168787"><ele>164.0</ele><time>2026-04-30T15:03:53.003Z</time></trkpt><trkpt lat="40.74794865960622" lon="9.516199758079365"><ele>165.33333333333331</ele><time>2026-04-30T15:03:54.003Z</time></trkpt><trkpt lat="40.74781808251342" lon="9.516007032592718"><ele>166.66666666666666</ele><time>2026-04-30T15:03:55.003Z</time></trkpt><trkpt lat="40.74770205638995" lon="9.515794328155566"><ele>168.0</ele><time>2026-04-30T15:03:56.003Z</time></trkpt><trkpt lat="40.747582877172064" lon="9.515582348597864"><ele>168.0</ele><time>2026-04-30T15:03:57.003Z</time></trkpt><trkpt lat="40.74746254140597" lon="9.515378811016832"><ele>168.0</ele><time>2026-04-30T15:03:58.003Z</time></trkpt><trkpt lat="40.74734776009485" lon="9.515193693866753"><ele>168.0</ele><time>2026-04-30T15:03:59.003Z</time></trkpt><trkpt lat="40.74723190759993" lon="9.515023838623954"><ele>168.0</ele><time>2026-04-30T15:04:00.003Z</time></trkpt><trkpt lat="40.747111685426134" lon="9.514864956677954"><ele>168.0</ele><time>2026-04-30T15:04:01.003Z</time></trkpt><trkpt lat="40.7469871932401" lon="9.514733887509149"><ele>168.0</ele><time>2026-04-30T15:04:02.003Z</time></trkpt><trkpt lat="40.74685092690845" lon="9.514638671526313"><ele>168.33333333333334</ele><time>2026-04-30T15:04:03.003Z</time></trkpt><trkpt lat="40.7466996975919" lon="9.514556226221316"><ele>168.66666666666669</ele><time>2026-04-30T15:04:04.003Z</time></trkpt><trkpt lat="40.74654700339777" lon="9.514490221337143"><ele>169.0</ele><time>2026-04-30T15:04:05.003Z</time></trkpt><trkpt lat="40.74637329655419" lon="9.514428478555525"><ele>169.0</ele><time>2026-04-30T15:04:06.003Z</time></trkpt><trkpt lat="40.74619200514877" lon="9.5143757103306"><ele>169.0</ele><time>2026-04-30T15:04:07.003Z</time></trkpt><trkpt lat="40.746004500022146" lon="9.514313901678573"><ele>169.0</ele><time>2026-04-30T15:04:08.003Z</time></trkpt><trkpt lat="40.745816454905984" lon="9.51424731103626"><ele>168.0</ele><time>2026-04-30T15:04:09.003Z</time></trkpt><trkpt lat="40.745621993216226" lon="9.514183565288667"><ele>167.0</ele><time>2026-04-30T15:04:10.003Z</time></trkpt><trkpt lat="40.74542939608469" lon="9.5141192397781"><ele>166.0</ele><time>2026-04-30T15:04:11.003Z</time></trkpt><trkpt lat="40.745234015857946" lon="9.5140559369386"><ele>165.66666666666669</ele><time>2026-04-30T15:04:12.003Z</time></trkpt><trkpt lat="40.74504537246829" lon="9.513989796522319"><ele>165.33333333333334</ele><time>2026-04-30T15:04:13.003Z</time></trkpt><trkpt lat="40.744843108498166" lon="9.513930826080673"><ele>165.0</ele><time>2026-04-30T15:04:14.003Z</time></trkpt><trkpt lat="40.74465384122564" lon="9.513860159332264"><ele>165.0</ele><time>2026-04-30T15:04:15.003Z</time></trkpt><trkpt lat="40.744471930567485" lon="9.513796866700998"><ele>165.0</ele><time>2026-04-30T15:04:16.003Z</time></trkpt><trkpt lat="40.74429438626835" lon="9.513733563870012"><ele>165.0</ele><time>2026-04-30T15:04:17.003Z</time></trkpt><trkpt lat="40.74413444499925" lon="9.513676833991877"><ele>166.66666666666666</ele><time>2026-04-30T15:04:18.003Z</time></trkpt><trkpt lat="40.74398656489219" lon="9.513600388815398"><ele>168.33333333333331</ele><time>2026-04-30T15:04:19.003Z</time></trkpt><trkpt lat="40.74383886981173" lon="9.513494740419308"><ele>170.0</ele><time>2026-04-30T15:04:20.003Z</time></trkpt><trkpt lat="40.74369230027384" lon="9.513360703455128"><ele>171.0</ele><time>2026-04-30T15:04:21.003Z</time></trkpt><trkpt lat="40.74353420024686" lon="9.51321219444574"><ele>172.0</ele><time>2026-04-30T15:04:22.003Z</time></trkpt><trkpt lat="40.7433747846877" lon="9.513049680210932"><ele>173.0</ele><time>2026-04-30T15:04:23.003Z</time></trkpt><trkpt lat="40.74320303537909" lon="9.512877851771544"><ele>173.0</ele><time>2026-04-30T15:04:24.003Z</time></trkpt><trkpt lat="40.74302903105531" lon="9.512702571340093"><ele>173.0</ele><time>2026-04-30T15:04:25.003Z</time></trkpt><trkpt lat="40.742851246263825" lon="9.512525958644169"><ele>173.0</ele><time>2026-04-30T15:04:26.003Z</time></trkpt><trkpt lat="40.742668555890184" lon="9.512345031721276"><ele>174.0</ele><time>2026-04-30T15:04:27.003Z</time></trkpt><trkpt lat="40.742487511664095" lon="9.512162798791934"><ele>175.0</ele><time>2026-04-30T15:04:28.003Z</time></trkpt><trkpt lat="40.74230586651975" lon="9.511983300495137"><ele>175.0</ele><time>2026-04-30T15:04:29.003Z</time></trkpt><trkpt lat="40.74212707771715" lon="9.511801505879193"><ele>175.0</ele><time>2026-04-30T15:04:30.003Z</time></trkpt><trkpt lat="40.741950095102155" lon="9.51162471672107"><ele>175.0</ele><time>2026-04-30T15:04:31.003Z</time></trkpt><trkpt lat="40.74177615019569" lon="9.511448629786145"><ele>175.5</ele><time>2026-04-30T15:04:32.003Z</time></trkpt><trkpt lat="40.74160307505028" lon="9.51125680335614"><ele>176.0</ele><time>2026-04-30T15:04:33.003Z</time></trkpt><trkpt lat="40.74142462262759" lon="9.51107260236402"><ele>176.0</ele><time>2026-04-30T15:04:34.003Z</time></trkpt><trkpt lat="40.741247759676895" lon="9.510889767053591"><ele>176.0</ele><time>2026-04-30T15:04:35.003Z</time></trkpt><trkpt lat="40.74107042278979" lon="9.510701026747892"><ele>176.0</ele><time>2026-04-30T15:04:36.003Z</time></trkpt><trkpt lat="40.740895286560786" lon="9.510513781072644"><ele>176.0</ele><time>2026-04-30T15:04:37.003Z</time></trkpt><trkpt lat="40.740718811155425" lon="9.510329578590053"><ele>176.0</ele><time>2026-04-30T15:04:38.003Z</time></trkpt><trkpt lat="40.74054157947535" lon="9.510148737023835"><ele>176.0</ele><time>2026-04-30T15:04:39.003Z</time></trkpt><trkpt lat="40.74037140583098" lon="9.509973948998592"><ele>176.0</ele><time>2026-04-30T15:04:40.003Z</time></trkpt><trkpt lat="40.740204057092" lon="9.509800158526538"><ele>176.0</ele><time>2026-04-30T15:04:41.003Z</time></trkpt><trkpt lat="40.74004300126033" lon="9.509644939649755"><ele>176.0</ele><time>2026-04-30T15:04:42.003Z</time></trkpt><trkpt lat="40.739897233590476" lon="9.50947285588584"><ele>176.0</ele><time>2026-04-30T15:04:43.003Z</time></trkpt><trkpt lat="40.73974549212266" lon="9.509326155571143"><ele>175.66666666666666</ele><time>2026-04-30T15:04:44.003Z</time></trkpt><trkpt lat="40.73959724386903" lon="9.509196076290692"><ele>175.33333333333334</ele><time>2026-04-30T15:04:45.003Z</time></trkpt><trkpt lat="40.73944696699711" lon="9.509068880058518"><ele>175.0</ele><time>2026-04-30T15:04:46.003Z</time></trkpt><trkpt lat="40.73929690984129" lon="9.508963044091926"><ele>175.0</ele><time>2026-04-30T15:04:47.003Z</time></trkpt><trkpt lat="40.73913515650696" lon="9.508864128601836"><ele>175.0</ele><time>2026-04-30T15:04:48.003Z</time></trkpt><trkpt lat="40.738962643700354" lon="9.508772122095175"><ele>175.0</ele><time>2026-04-30T15:04:49.003Z</time></trkpt><trkpt lat="40.738783095330106" lon="9.508676064032054"><ele>175.66666666666669</ele><time>2026-04-30T15:04:50.003Z</time></trkpt><trkpt lat="40.73859294851129" lon="9.508584116906082"><ele>176.33333333333334</ele><time>2026-04-30T15:04:51.003Z</time></trkpt><trkpt lat="40.738400605018455" lon="9.508485423409041"><ele>177.0</ele><time>2026-04-30T15:04:52.003Z</time></trkpt><trkpt lat="40.738205420320284" lon="9.508384958790922"><ele>177.33333333333334</ele><time>2026-04-30T15:04:53.003Z</time></trkpt><trkpt lat="40.7380086296651" lon="9.508283749562098"><ele>177.66666666666669</ele><time>2026-04-30T15:04:54.003Z</time></trkpt><trkpt lat="40.73781380892627" lon="9.508182784399706"><ele>178.0</ele><time>2026-04-30T15:04:55.003Z</time></trkpt><trkpt lat="40.73762131477562" lon="9.508079035095575"><ele>178.66666666666669</ele><time>2026-04-30T15:04:56.003Z</time></trkpt><trkpt lat="40.737436174068385" lon="9.507976436290093"><ele>179.33333333333334</ele><time>2026-04-30T15:04:57.003Z</time></trkpt><trkpt lat="40.73726491102445" lon="9.507873406453792"><ele>180.0</ele><time>2026-04-30T15:04:58.003Z</time></trkpt><trkpt lat="40.73711181687911" lon="9.50775911246741"><ele>180.66666666666666</ele><time>2026-04-30T15:04:59.003Z</time></trkpt><trkpt lat="40.7369724666024" lon="9.507627327024098"><ele>181.33333333333331</ele><time>2026-04-30T15:05:00.003Z</time></trkpt><trkpt lat="40.73683815516773" lon="9.507486669032247"><ele>182.0</ele><time>2026-04-30T15:05:01.003Z</time></trkpt><trkpt lat="40.73671272500791" lon="9.507332401834732"><ele>183.33333333333331</ele><time>2026-04-30T15:05:02.003Z</time></trkpt><trkpt lat="40.73660412516221" lon="9.50714267573284"><ele>184.66666666666666</ele><time>2026-04-30T15:05:03.003Z</time></trkpt><trkpt lat="40.73648395991123" lon="9.506962299751768"><ele>186.0</ele><time>2026-04-30T15:05:04.003Z</time></trkpt><trkpt lat="40.73636177269801" lon="9.506816438234273"><ele>186.66666666666666</ele><time>2026-04-30T15:05:05.003Z</time></trkpt><trkpt lat="40.736270345956434" lon="9.506651836500993"><ele>187.33333333333331</ele><time>2026-04-30T15:05:06.003Z</time></trkpt><trkpt lat="40.736192750989105" lon="9.506481586873065"><ele>188.0</ele><time>2026-04-30T15:05:07.003Z</time></trkpt><trkpt lat="40.73615618966994" lon="9.506295372172836"><ele>189.0</ele><time>2026-04-30T15:05:08.003Z</time></trkpt><trkpt lat="40.73613727204347" lon="9.50611409844012"><ele>190.0</ele><time>2026-04-30T15:05:09.003Z</time></trkpt><trkpt lat="40.73614547557766" lon="9.505941989072646"><ele>191.0</ele><time>2026-04-30T15:05:10.003Z</time></trkpt><trkpt lat="40.73616380288145" lon="9.50575173366061"><ele>192.0</ele><time>2026-04-30T15:05:11.003Z</time></trkpt><trkpt lat="40.7361864467764" lon="9.505547857815678"><ele>197.33333333333331</ele><time>2026-04-30T15:05:12.003Z</time></trkpt><trkpt lat="40.736211085627495" lon="9.505326020245496"><ele>202.66666666666666</ele><time>2026-04-30T15:05:13.003Z</time></trkpt><trkpt lat="40.73623549723757" lon="9.50510622863815"><ele>208.0</ele><time>2026-04-30T15:05:14.003Z</time></trkpt><trkpt lat="40.73625577272311" lon="9.504884516942822"><ele>208.0</ele><time>2026-04-30T15:05:15.003Z</time></trkpt><trkpt lat="40.73626129998065" lon="9.50466571059499"><ele>208.0</ele><time>2026-04-30T15:05:16.003Z</time></trkpt><trkpt lat="40.736242283983096" lon="9.504446437823665"><ele>208.0</ele><time>2026-04-30T15:05:17.003Z</time></trkpt><trkpt lat="40.73619670936118" lon="9.504231921694709"><ele>208.25</ele><time>2026-04-30T15:05:18.003Z</time></trkpt><trkpt lat="40.73614186544291" lon="9.50407127120125"><ele>208.5</ele><time>2026-04-30T15:05:19.003Z</time></trkpt><trkpt lat="40.73607033577842" lon="9.503912429000929"><ele>208.75</ele><time>2026-04-30T15:05:20.003Z</time></trkpt><trkpt lat="40.73597510861658" lon="9.503752299967745"><ele>209.0</ele><time>2026-04-30T15:05:21.003Z</time></trkpt><trkpt lat="40.73585453314769" lon="9.503604227690799"><ele>208.0</ele><time>2026-04-30T15:05:22.003Z</time></trkpt><trkpt lat="40.735719582164684" lon="9.503479042479515"><ele>207.0</ele><time>2026-04-30T15:05:23.003Z</time></trkpt><trkpt lat="40.735585209729365" lon="9.50336006028748"><ele>206.0</ele><time>2026-04-30T15:05:24.003Z</time></trkpt><trkpt lat="40.73542879123344" lon="9.503219925448208"><ele>206.0</ele><time>2026-04-30T15:05:25.003Z</time></trkpt><trkpt lat="40.73527273089985" lon="9.50307717813327"><ele>206.0</ele><time>2026-04-30T15:05:26.003Z</time></trkpt><trkpt lat="40.735110128405466" lon="9.502937912612685"><ele>206.0</ele><time>2026-04-30T15:05:27.003Z</time></trkpt><trkpt lat="40.73496351542937" lon="9.502828021351354"><ele>206.33333333333334</ele><time>2026-04-30T15:05:28.003Z</time></trkpt><trkpt lat="40.734798728621236" lon="9.502719502994209"><ele>206.66666666666669</ele><time>2026-04-30T15:05:29.003Z</time></trkpt><trkpt lat="40.734602180767396" lon="9.502608724889916"><ele>207.0</ele><time>2026-04-30T15:05:30.003Z</time></trkpt><trkpt lat="40.73439910526939" lon="9.502487671510593"><ele>211.0</ele><time>2026-04-30T15:05:31.003Z</time></trkpt><trkpt lat="40.73419725313107" lon="9.50236695370716"><ele>215.0</ele><time>2026-04-30T15:05:32.003Z</time></trkpt><trkpt lat="40.73399207914266" lon="9.502245342628697"><ele>219.0</ele><time>2026-04-30T15:05:33.003Z</time></trkpt><trkpt lat="40.7337869589459" lon="9.502125138350793"><ele>218.0</ele><time>2026-04-30T15:05:34.003Z</time></trkpt><trkpt lat="40.733584581726696" lon="9.501999821020336"><ele>217.0</ele><time>2026-04-30T15:05:35.003Z</time></trkpt><trkpt lat="40.73338233274623" lon="9.501875845170504"><ele>216.0</ele><time>2026-04-30T15:05:36.003Z</time></trkpt><trkpt lat="40.733179219453504" lon="9.501758328437896"><ele>216.0</ele><time>2026-04-30T15:05:37.003Z</time></trkpt><trkpt lat="40.732981037414916" lon="9.501641505947955"><ele>216.0</ele><time>2026-04-30T15:05:38.003Z</time></trkpt><trkpt lat="40.7327806718657" lon="9.501522899813489"><ele>216.0</ele><time>2026-04-30T15:05:39.003Z</time></trkpt><trkpt lat="40.73258454603536" lon="9.501403852216631"><ele>217.66666666666669</ele><time>2026-04-30T15:05:40.003Z</time></trkpt><trkpt lat="40.732390050307295" lon="9.501280605807906"><ele>219.33333333333334</ele><time>2026-04-30T15:05:41.003Z</time></trkpt><trkpt lat="40.73218827140135" lon="9.501161728792725"><ele>221.0</ele><time>2026-04-30T15:05:42.003Z</time></trkpt><trkpt lat="40.7319872937233" lon="9.501043287340895"><ele>223.0</ele><time>2026-04-30T15:05:43.003Z</time></trkpt><trkpt lat="40.731785306775386" lon="9.500933872962312"><ele>225.0</ele><time>2026-04-30T15:05:44.003Z</time></trkpt><trkpt lat="40.73158972585429" lon="9.50081900531055"><ele>227.0</ele><time>2026-04-30T15:05:45.003Z</time></trkpt><trkpt lat="40.73140158250391" lon="9.500707811347809"><ele>227.0</ele><time>2026-04-30T15:05:46.003Z</time></trkpt><trkpt lat="40.73120060211542" lon="9.500625813055775"><ele>227.0</ele><time>2026-04-30T15:05:47.003Z</time></trkpt><trkpt lat="40.73102804406232" lon="9.500535579605506"><ele>227.0</ele><time>2026-04-30T15:05:48.003Z</time></trkpt><trkpt lat="40.730866262184705" lon="9.500454749973235"><ele>227.0</ele><time>2026-04-30T15:05:49.003Z</time></trkpt><trkpt lat="40.730717959836035" lon="9.500412704517846"><ele>227.0</ele><time>2026-04-30T15:05:50.003Z</time></trkpt><trkpt lat="40.730587517848704" lon="9.500376810540468"><ele>227.0</ele><time>2026-04-30T15:05:51.003Z</time></trkpt><trkpt lat="40.73044603845954" lon="9.500345035725612"><ele>227.0</ele><time>2026-04-30T15:05:52.003Z</time></trkpt><trkpt lat="40.73030437428316" lon="9.500395898039528"><ele>230.5</ele><time>2026-04-30T15:05:53.003Z</time></trkpt><trkpt lat="40.73017464405152" lon="9.500472534293056"><ele>234.0</ele><time>2026-04-30T15:05:54.003Z</time></trkpt><trkpt lat="40.73006452760761" lon="9.50056586544501"><ele>237.5</ele><time>2026-04-30T15:05:55.003Z</time></trkpt><trkpt lat="40.729962954831336" lon="9.500680513104196"><ele>241.0</ele><time>2026-04-30T15:05:56.003Z</time></trkpt><trkpt lat="40.72985973401715" lon="9.500806618798372"><ele>241.0</ele><time>2026-04-30T15:05:57.003Z</time></trkpt><trkpt lat="40.72974565348453" lon="9.500934091313516"><ele>241.0</ele><time>2026-04-30T15:05:58.003Z</time></trkpt><trkpt lat="40.7296028030159" lon="9.501048832122374"><ele>241.0</ele><time>2026-04-30T15:05:59.003Z</time></trkpt><trkpt lat="40.72946687058734" lon="9.501140018125048"><ele>242.0</ele><time>2026-04-30T15:06:00.003Z</time></trkpt><trkpt lat="40.72933493806453" lon="9.501201560289692"><ele>243.0</ele><time>2026-04-30T15:06:01.003Z</time></trkpt><trkpt lat="40.72920769791497" lon="9.501224526719064"><ele>244.0</ele><time>2026-04-30T15:06:02.003Z</time></trkpt><trkpt lat="40.72908085663296" lon="9.501228548356432"><ele>245.0</ele><time>2026-04-30T15:06:03.003Z</time></trkpt><trkpt lat="40.728946947448534" lon="9.501207001067515"><ele>245.0</ele><time>2026-04-30T15:06:04.003Z</time></trkpt><trkpt lat="40.728805575208234" lon="9.501159373301208"><ele>245.0</ele><time>2026-04-30T15:06:05.003Z</time></trkpt><trkpt lat="40.7286614026321" lon="9.501095430231274"><ele>245.0</ele><time>2026-04-30T15:06:06.003Z</time></trkpt><trkpt lat="40.72850701994242" lon="9.501030103319579"><ele>247.0</ele><time>2026-04-30T15:06:07.003Z</time></trkpt><trkpt lat="40.72834983085875" lon="9.500962104543117"><ele>249.0</ele><time>2026-04-30T15:06:08.003Z</time></trkpt><trkpt lat="40.728188788823275" lon="9.500894659468553"><ele>251.0</ele><time>2026-04-30T15:06:09.004Z</time></trkpt><trkpt lat="40.728027682338585" lon="9.500826384744505"><ele>251.0</ele><time>2026-04-30T15:06:10.004Z</time></trkpt><trkpt lat="40.727869469338344" lon="9.50075290011195"><ele>251.0</ele><time>2026-04-30T15:06:11.004Z</time></trkpt><trkpt lat="40.727711266791246" lon="9.500676306120765"><ele>251.0</ele><time>2026-04-30T15:06:12.004Z</time></trkpt><trkpt lat="40.727562375030665" lon="9.500585286402817"><ele>252.33333333333334</ele><time>2026-04-30T15:06:13.004Z</time></trkpt><trkpt lat="40.72741909113526" lon="9.500484828175622"><ele>253.66666666666669</ele><time>2026-04-30T15:06:14.004Z</time></trkpt><trkpt lat="40.72727870315033" lon="9.500371840998978"><ele>255.0</ele><time>2026-04-30T15:06:15.004Z</time></trkpt><trkpt lat="40.727143795195644" lon="9.50024284457525"><ele>255.33333333333331</ele><time>2026-04-30T15:06:16.004Z</time></trkpt><trkpt lat="40.72702273124287" lon="9.500083536832742"><ele>255.66666666666666</ele><time>2026-04-30T15:06:17.004Z</time></trkpt><trkpt lat="40.726889172995115" lon="9.499915578287519"><ele>256.0</ele><time>2026-04-30T15:06:18.004Z</time></trkpt><trkpt lat="40.72675026124578" lon="9.499740851554915"><ele>258.66666666666663</ele><time>2026-04-30T15:06:19.004Z</time></trkpt><trkpt lat="40.72660054119585" lon="9.49957765926191"><ele>261.3333333333333</ele><time>2026-04-30T15:06:20.004Z</time></trkpt><trkpt lat="40.72645509440604" lon="9.4993943713181"><ele>264.0</ele><time>2026-04-30T15:06:21.004Z</time></trkpt><trkpt lat="40.7263076154276" lon="9.499201845752705"><ele>264.0</ele><time>2026-04-30T15:06:22.004Z</time></trkpt><trkpt lat="40.726151625659504" lon="9.499009348135683"><ele>264.0</ele><time>2026-04-30T15:06:23.004Z</time></trkpt><trkpt lat="40.7260001470144" lon="9.498814456600853"><ele>264.0</ele><time>2026-04-30T15:06:24.004Z</time></trkpt><trkpt lat="40.72585011632269" lon="9.498622270767841"><ele>268.3333333333333</ele><time>2026-04-30T15:06:25.004Z</time></trkpt><trkpt lat="40.72570055947921" lon="9.498437416117287"><ele>272.66666666666663</ele><time>2026-04-30T15:06:26.004Z</time></trkpt><trkpt lat="40.725560329515886" lon="9.498258972155625"><ele>277.0</ele><time>2026-04-30T15:06:27.004Z</time></trkpt><trkpt lat="40.72542535681851" lon="9.498090925500398"><ele>277.0</ele><time>2026-04-30T15:06:28.004Z</time></trkpt><trkpt lat="40.725306662654596" lon="9.497920156602147"><ele>277.0</ele><time>2026-04-30T15:06:29.004Z</time></trkpt><trkpt lat="40.7252038242923" lon="9.497738382644485"><ele>277.0</ele><time>2026-04-30T15:06:30.004Z</time></trkpt><trkpt lat="40.72511818754406" lon="9.497548790001341"><ele>282.0</ele><time>2026-04-30T15:06:31.004Z</time></trkpt><trkpt lat="40.72506451960547" lon="9.497342257076347"><ele>287.0</ele><time>2026-04-30T15:06:32.004Z</time></trkpt><trkpt lat="40.725016684937536" lon="9.49713680704338"><ele>292.0</ele><time>2026-04-30T15:06:33.004Z</time></trkpt><trkpt lat="40.72498497561124" lon="9.496928767196344"><ele>293.0</ele><time>2026-04-30T15:06:34.004Z</time></trkpt><trkpt lat="40.72497023866957" lon="9.496709799971784"><ele>294.0</ele><time>2026-04-30T15:06:35.004Z</time></trkpt><trkpt lat="40.72496222819805" lon="9.496491142254182"><ele>295.0</ele><time>2026-04-30T15:06:36.004Z</time></trkpt><trkpt lat="40.72496000203919" lon="9.49626271076015"><ele>296.3333333333333</ele><time>2026-04-30T15:06:37.004Z</time></trkpt><trkpt lat="40.72495497994495" lon="9.496022426196566"><ele>297.6666666666667</ele><time>2026-04-30T15:06:38.004Z</time></trkpt><trkpt lat="40.724975046303115" lon="9.495778789715557"><ele>299.0</ele><time>2026-04-30T15:06:39.004Z</time></trkpt><trkpt lat="40.725009862943" lon="9.495544827980277"><ele>300.6666666666667</ele><time>2026-04-30T15:06:40.004Z</time></trkpt><trkpt lat="40.72502092460615" lon="9.49531137609384"><ele>302.3333333333333</ele><time>2026-04-30T15:06:41.004Z</time></trkpt><trkpt lat="40.7250164730637" lon="9.495078317420486"><ele>304.0</ele><time>2026-04-30T15:06:42.004Z</time></trkpt><trkpt lat="40.72498123645955" lon="9.494846738918792"><ele>304.0</ele><time>2026-04-30T15:06:43.004Z</time></trkpt><trkpt lat="40.72495321892598" lon="9.494628908280802"><ele>304.0</ele><time>2026-04-30T15:06:44.004Z</time></trkpt><trkpt lat="40.72491570161682" lon="9.494417757639424"><ele>304.0</ele><time>2026-04-30T15:06:45.004Z</time></trkpt><trkpt lat="40.72486782368556" lon="9.494213049353073"><ele>304.3333333333333</ele><time>2026-04-30T15:06:46.004Z</time></trkpt><trkpt lat="40.724809350676715" lon="9.49401569695098"><ele>304.6666666666667</ele><time>2026-04-30T15:06:47.004Z</time></trkpt><trkpt lat="40.72473373239084" lon="9.493829689471523"><ele>305.0</ele><time>2026-04-30T15:06:48.004Z</time></trkpt><trkpt lat="40.72464399901773" lon="9.493656830229684"><ele>304.25</ele><time>2026-04-30T15:06:49.004Z</time></trkpt><trkpt lat="40.724536034650164" lon="9.493501483885977"><ele>303.5</ele><time>2026-04-30T15:06:50.004Z</time></trkpt><trkpt lat="40.72443396266262" lon="9.493375143049603"><ele>302.75</ele><time>2026-04-30T15:06:51.004Z</time></trkpt><trkpt lat="40.724329272678006" lon="9.493278250293566"><ele>302.0</ele><time>2026-04-30T15:06:52.004Z</time></trkpt><trkpt lat="40.724209145285286" lon="9.493175785023288"><ele>306.0</ele><time>2026-04-30T15:06:53.004Z</time></trkpt><trkpt lat="40.724084724968996" lon="9.493108367710567"><ele>310.0</ele><time>2026-04-30T15:06:54.004Z</time></trkpt><trkpt lat="40.723955083122696" lon="9.493061530885603"><ele>314.0</ele><time>2026-04-30T15:06:55.004Z</time></trkpt><trkpt lat="40.72380753721078" lon="9.4930354373549"><ele>318.0</ele><time>2026-04-30T15:06:56.004Z</time></trkpt><trkpt lat="40.72359563121305" lon="9.493011528982384"><ele>318.0</ele><time>2026-04-30T15:06:57.004Z</time></trkpt><trkpt lat="40.72339466838673" lon="9.492995297809811"><ele>318.0</ele><time>2026-04-30T15:06:58.004Z</time></trkpt><trkpt lat="40.723237982719596" lon="9.492950574600059"><ele>318.0</ele><time>2026-04-30T15:06:59.004Z</time></trkpt><trkpt lat="40.72310848580605" lon="9.49288170226388"><ele>317.5</ele><time>2026-04-30T15:07:00.004Z</time></trkpt><trkpt lat="40.72299768046559" lon="9.492777759957042"><ele>317.0</ele><time>2026-04-30T15:07:01.004Z</time></trkpt><trkpt lat="40.72289471112259" lon="9.492665763144107"><ele>316.5</ele><time>2026-04-30T15:07:02.004Z</time></trkpt><trkpt lat="40.722808519042964" lon="9.492537211530298"><ele>316.0</ele><time>2026-04-30T15:07:03.004Z</time></trkpt><trkpt lat="40.72273882460915" lon="9.492389896194164"><ele>321.25</ele><time>2026-04-30T15:07:04.004Z</time></trkpt><trkpt lat="40.722682127522056" lon="9.492219886692814"><ele>326.5</ele><time>2026-04-30T15:07:05.004Z</time></trkpt><trkpt lat="40.722674661631395" lon="9.492043360316293"><ele>331.75</ele><time>2026-04-30T15:07:06.004Z</time></trkpt><trkpt lat="40.72265488239204" lon="9.491861784213066"><ele>337.0</ele><time>2026-04-30T15:07:07.004Z</time></trkpt><trkpt lat="40.72262680052073" lon="9.491653232019448"><ele>337.3333333333333</ele><time>2026-04-30T15:07:08.004Z</time></trkpt><trkpt lat="40.72258525013991" lon="9.491444675269518"><ele>337.6666666666667</ele><time>2026-04-30T15:07:09.004Z</time></trkpt><trkpt lat="40.72252093007697" lon="9.491243310144565"><ele>338.0</ele><time>2026-04-30T15:07:10.004Z</time></trkpt><trkpt lat="40.72244394155937" lon="9.491045185767256"><ele>336.33333333333337</ele><time>2026-04-30T15:07:11.004Z</time></trkpt><trkpt lat="40.722363337125515" lon="9.490844052014484"><ele>334.6666666666667</ele><time>2026-04-30T15:07:12.004Z</time></trkpt><trkpt lat="40.722271363206836" lon="9.4906383701949"><ele>333.0</ele><time>2026-04-30T15:07:13.004Z</time></trkpt><trkpt lat="40.722155227434484" lon="9.490455633925146"><ele>329.6666666666667</ele><time>2026-04-30T15:07:14.004Z</time></trkpt><trkpt lat="40.72204435744529" lon="9.490265483576417"><ele>326.33333333333337</ele><time>2026-04-30T15:07:15.004Z</time></trkpt><trkpt lat="40.72191738579866" lon="9.490078994673395"><ele>323.0</ele><time>2026-04-30T15:07:16.004Z</time></trkpt><trkpt lat="40.72177421527476" lon="9.4898987978555"><ele>328.33333333333337</ele><time>2026-04-30T15:07:17.004Z</time></trkpt><trkpt lat="40.72162459169007" lon="9.489714703683267"><ele>333.6666666666667</ele><time>2026-04-30T15:07:18.004Z</time></trkpt><trkpt lat="40.72147321975272" lon="9.489534875263384"><ele>339.0</ele><time>2026-04-30T15:07:19.004Z</time></trkpt><trkpt lat="40.721316168171356" lon="9.489353894309769"><ele>339.0</ele><time>2026-04-30T15:07:20.004Z</time></trkpt><trkpt lat="40.721166841119064" lon="9.48915969016376"><ele>339.0</ele><time>2026-04-30T15:07:21.004Z</time></trkpt><trkpt lat="40.72100604966493" lon="9.488971898424161"><ele>339.0</ele><time>2026-04-30T15:07:22.004Z</time></trkpt><trkpt lat="40.72084287333381" lon="9.488788372609369"><ele>344.0</ele><time>2026-04-30T15:07:23.004Z</time></trkpt><trkpt lat="40.7206762408641" lon="9.488605344469528"><ele>349.0</ele><time>2026-04-30T15:07:24.004Z</time></trkpt><trkpt lat="40.72050585668451" lon="9.48842966452943"><ele>354.0</ele><time>2026-04-30T15:07:25.004Z</time></trkpt><trkpt lat="40.720329983515214" lon="9.48826460185924"><ele>359.0</ele><time>2026-04-30T15:07:26.004Z</time></trkpt><trkpt lat="40.72014892300205" lon="9.48810696278087"><ele>364.0</ele><time>2026-04-30T15:07:27.004Z</time></trkpt><trkpt lat="40.71997171180593" lon="9.487944000098867"><ele>369.0</ele><time>2026-04-30T15:07:28.004Z</time></trkpt><trkpt lat="40.71977900189729" lon="9.487791742166298"><ele>369.0</ele><time>2026-04-30T15:07:29.004Z</time></trkpt><trkpt lat="40.71961009109746" lon="9.48762658190164"><ele>369.0</ele><time>2026-04-30T15:07:30.004Z</time></trkpt><trkpt lat="40.71943862786657" lon="9.487472185391224"><ele>369.0</ele><time>2026-04-30T15:07:31.004Z</time></trkpt><trkpt lat="40.719268889702064" lon="9.487316405043728"><ele>375.66666666666663</ele><time>2026-04-30T15:07:32.004Z</time></trkpt><trkpt lat="40.719117442490536" lon="9.487168980911276"><ele>382.3333333333333</ele><time>2026-04-30T15:07:33.004Z</time></trkpt><trkpt lat="40.718988140373604" lon="9.487037258807483"><ele>389.0</ele><time>2026-04-30T15:07:34.004Z</time></trkpt><trkpt lat="40.718873608713885" lon="9.486914051890075"><ele>389.25</ele><time>2026-04-30T15:07:35.004Z</time></trkpt><trkpt lat="40.71881059643608" lon="9.486761536681716"><ele>389.5</ele><time>2026-04-30T15:07:36.004Z</time></trkpt><trkpt lat="40.71876766338143" lon="9.486608588583788"><ele>389.75</ele><time>2026-04-30T15:07:37.004Z</time></trkpt><trkpt lat="40.71874461012874" lon="9.48645163336338"><ele>390.0</ele><time>2026-04-30T15:07:38.004Z</time></trkpt><trkpt lat="40.71874488811263" lon="9.486283219464136"><ele>395.66666666666663</ele><time>2026-04-30T15:07:39.004Z</time></trkpt><trkpt lat="40.718742868880966" lon="9.486093732229886"><ele>401.3333333333333</ele><time>2026-04-30T15:07:40.004Z</time></trkpt><trkpt lat="40.71874036287909" lon="9.48588740720612"><ele>407.0</ele><time>2026-04-30T15:07:41.004Z</time></trkpt><trkpt lat="40.718721972883955" lon="9.485690253585258"><ele>407.0</ele><time>2026-04-30T15:07:42.004Z</time></trkpt><trkpt lat="40.71871543698723" lon="9.485498959248654"><ele>407.0</ele><time>2026-04-30T15:07:43.004Z</time></trkpt><trkpt lat="40.718701967268856" lon="9.485315403803725"><ele>407.0</ele><time>2026-04-30T15:07:44.004Z</time></trkpt><trkpt lat="40.71866900631242" lon="9.485141190671849"><ele>407.0</ele><time>2026-04-30T15:07:45.004Z</time></trkpt><trkpt lat="40.71861915267378" lon="9.484972597174872"><ele>409.3333333333333</ele><time>2026-04-30T15:07:46.004Z</time></trkpt><trkpt lat="40.71855093581407" lon="9.48478836022048"><ele>411.66666666666663</ele><time>2026-04-30T15:07:47.004Z</time></trkpt><trkpt lat="40.71847358101941" lon="9.484612193798277"><ele>414.0</ele><time>2026-04-30T15:07:48.004Z</time></trkpt><trkpt lat="40.718379147078345" lon="9.484451718686481"><ele>416.33333333333337</ele><time>2026-04-30T15:07:49.004Z</time></trkpt><trkpt lat="40.71826083021893" lon="9.484310414823936"><ele>418.6666666666667</ele><time>2026-04-30T15:07:50.004Z</time></trkpt><trkpt lat="40.718121665413996" lon="9.484176025905365"><ele>421.0</ele><time>2026-04-30T15:07:51.004Z</time></trkpt><trkpt lat="40.71797469715995" lon="9.484053544725617"><ele>421.0</ele><time>2026-04-30T15:07:52.004Z</time></trkpt><trkpt lat="40.71781947250528" lon="9.483941267767564"><ele>421.0</ele><time>2026-04-30T15:07:53.004Z</time></trkpt><trkpt lat="40.71766791805247" lon="9.48383098206615"><ele>421.0</ele><time>2026-04-30T15:07:54.004Z</time></trkpt><trkpt lat="40.71751101661606" lon="9.483732354515736"><ele>422.6666666666667</ele><time>2026-04-30T15:07:55.004Z</time></trkpt><trkpt lat="40.71735291247307" lon="9.483643540098155"><ele>424.33333333333337</ele><time>2026-04-30T15:07:56.004Z</time></trkpt><trkpt lat="40.717190149296094" lon="9.483547260465548"><ele>426.0</ele><time>2026-04-30T15:07:57.004Z</time></trkpt><trkpt lat="40.71701546311826" lon="9.48346454835689"><ele>425.0</ele><time>2026-04-30T15:07:58.004Z</time></trkpt><trkpt lat="40.71682822556861" lon="9.483394244324304"><ele>424.0</ele><time>2026-04-30T15:07:59.004Z</time></trkpt><trkpt lat="40.716638014222376" lon="9.483307912604179"><ele>423.0</ele><time>2026-04-30T15:08:00.004Z</time></trkpt><trkpt lat="40.71643814912546" lon="9.483214601761702"><ele>423.0</ele><time>2026-04-30T15:08:01.004Z</time></trkpt><trkpt lat="40.71623503611285" lon="9.483117296512972"><ele>423.0</ele><time>2026-04-30T15:08:02.004Z</time></trkpt><trkpt lat="40.71602770628659" lon="9.483023850216508"><ele>423.0</ele><time>2026-04-30T15:08:03.004Z</time></trkpt><trkpt lat="40.71582509561662" lon="9.48291746628158"><ele>423.33333333333337</ele><time>2026-04-30T15:08:04.004Z</time></trkpt><trkpt lat="40.71561693837309" lon="9.482816376314084"><ele>423.6666666666667</ele><time>2026-04-30T15:08:05.004Z</time></trkpt><trkpt lat="40.715407507531395" lon="9.482716187908416"><ele>424.0</ele><time>2026-04-30T15:08:06.004Z</time></trkpt><trkpt lat="40.71520094789043" lon="9.482619899045774"><ele>425.6666666666667</ele><time>2026-04-30T15:08:07.004Z</time></trkpt><trkpt lat="40.71499014652243" lon="9.482522039197192"><ele>427.33333333333337</ele><time>2026-04-30T15:08:08.004Z</time></trkpt><trkpt lat="40.71478008125363" lon="9.482418870432415"><ele>429.0</ele><time>2026-04-30T15:08:09.004Z</time></trkpt><trkpt lat="40.71457315264562" lon="9.482315538341286"><ele>429.66666666666663</ele><time>2026-04-30T15:08:10.004Z</time></trkpt><trkpt lat="40.71436505368431" lon="9.48221374467763"><ele>430.3333333333333</ele><time>2026-04-30T15:08:11.004Z</time></trkpt><trkpt lat="40.71415640439912" lon="9.482112936896316"><ele>431.0</ele><time>2026-04-30T15:08:12.004Z</time></trkpt><trkpt lat="40.71395089309326" lon="9.482014019850931"><ele>431.0</ele><time>2026-04-30T15:08:13.004Z</time></trkpt><trkpt lat="40.71375760042169" lon="9.481911814499483"><ele>431.0</ele><time>2026-04-30T15:08:14.004Z</time></trkpt><trkpt lat="40.713578820140164" lon="9.481814451357113"><ele>431.0</ele><time>2026-04-30T15:08:15.004Z</time></trkpt><trkpt lat="40.713417769475896" lon="9.481710930123079"><ele>432.66666666666663</ele><time>2026-04-30T15:08:16.004Z</time></trkpt><trkpt lat="40.71326294489398" lon="9.481598438720738"><ele>434.33333333333337</ele><time>2026-04-30T15:08:17.004Z</time></trkpt><trkpt lat="40.71311710725379" lon="9.481485180582146"><ele>436.0</ele><time>2026-04-30T15:08:18.004Z</time></trkpt><trkpt lat="40.71297002118826" lon="9.481359329428482"><ele>434.6666666666667</ele><time>2026-04-30T15:08:19.004Z</time></trkpt><trkpt lat="40.71280753318171" lon="9.481233630509365"><ele>433.33333333333337</ele><time>2026-04-30T15:08:20.004Z</time></trkpt><trkpt lat="40.71263825996647" lon="9.481092461944916"><ele>432.0</ele><time>2026-04-30T15:08:21.004Z</time></trkpt><trkpt lat="40.71246399345861" lon="9.480949665408016"><ele>432.0</ele><time>2026-04-30T15:08:22.004Z</time></trkpt><trkpt lat="40.71228663288433" lon="9.480802744100727"><ele>432.0</ele><time>2026-04-30T15:08:23.004Z</time></trkpt><trkpt lat="40.71210614833988" lon="9.480655534299029"><ele>432.0</ele><time>2026-04-30T15:08:24.004Z</time></trkpt><trkpt lat="40.71192559089013" lon="9.480502266482663"><ele>431.33333333333337</ele><time>2026-04-30T15:08:25.004Z</time></trkpt><trkpt lat="40.711742631930136" lon="9.48035686288293"><ele>430.6666666666667</ele><time>2026-04-30T15:08:26.004Z</time></trkpt><trkpt lat="40.71155983697547" lon="9.480213864360358"><ele>430.0</ele><time>2026-04-30T15:08:27.004Z</time></trkpt><trkpt lat="40.711387484268776" lon="9.480071338510731"><ele>430.0</ele><time>2026-04-30T15:08:28.004Z</time></trkpt><trkpt lat="40.711226228772084" lon="9.479935670708231"><ele>430.0</ele><time>2026-04-30T15:08:29.004Z</time></trkpt><trkpt lat="40.711062420218155" lon="9.479808350270057"><ele>430.0</ele><time>2026-04-30T15:08:30.004Z</time></trkpt><trkpt lat="40.710890994900225" lon="9.479688909168251"><ele>428.6666666666667</ele><time>2026-04-30T15:08:31.004Z</time></trkpt><trkpt lat="40.710708917528414" lon="9.479582486279952"><ele>427.33333333333337</ele><time>2026-04-30T15:08:32.004Z</time></trkpt><trkpt lat="40.7105252896793" lon="9.479486955246436"><ele>426.0</ele><time>2026-04-30T15:08:33.004Z</time></trkpt><trkpt lat="40.71035349511824" lon="9.479412792654161"><ele>425.33333333333337</ele><time>2026-04-30T15:08:34.004Z</time></trkpt><trkpt lat="40.71019356315727" lon="9.479338882352272"><ele>424.6666666666667</ele><time>2026-04-30T15:08:35.004Z</time></trkpt><trkpt lat="40.71006089862596" lon="9.479253703956944"><ele>424.0</ele><time>2026-04-30T15:08:36.004Z</time></trkpt><trkpt lat="40.7099455451814" lon="9.479137469040168"><ele>424.0</ele><time>2026-04-30T15:08:37.004Z</time></trkpt><trkpt lat="40.70986474199266" lon="9.47897459566823"><ele>424.0</ele><time>2026-04-30T15:08:38.004Z</time></trkpt><trkpt lat="40.70977230230214" lon="9.478815776376628"><ele>424.0</ele><time>2026-04-30T15:08:39.004Z</time></trkpt><trkpt lat="40.70966441512785" lon="9.478657764308206"><ele>424.33333333333337</ele><time>2026-04-30T15:08:40.004Z</time></trkpt><trkpt lat="40.70956698558398" lon="9.478468355559933"><ele>424.66666666666663</ele><time>2026-04-30T15:08:41.004Z</time></trkpt><trkpt lat="40.709455182715" lon="9.478273021347873"><ele>425.0</ele><time>2026-04-30T15:08:42.004Z</time></trkpt><trkpt lat="40.70933256699023" lon="9.478073235405521"><ele>427.0</ele><time>2026-04-30T15:08:43.004Z</time></trkpt><trkpt lat="40.70919809384554" lon="9.477871289952796"><ele>429.0</ele><time>2026-04-30T15:08:44.004Z</time></trkpt><trkpt lat="40.70905656720583" lon="9.47766867607602"><ele>431.0</ele><time>2026-04-30T15:08:45.004Z</time></trkpt><trkpt lat="40.70890448840327" lon="9.47746738136643"><ele>431.0</ele><time>2026-04-30T15:08:46.004Z</time></trkpt><trkpt lat="40.70876183116474" lon="9.477260044407027"><ele>431.0</ele><time>2026-04-30T15:08:47.004Z</time></trkpt><trkpt lat="40.708628827647104" lon="9.477066719019515"><ele>431.0</ele><time>2026-04-30T15:08:48.004Z</time></trkpt><trkpt lat="40.708500121362306" lon="9.476880049250921"><ele>431.66666666666663</ele><time>2026-04-30T15:08:49.005Z</time></trkpt><trkpt lat="40.708385235476925" lon="9.476706957394365"><ele>432.33333333333337</ele><time>2026-04-30T15:08:50.005Z</time></trkpt><trkpt lat="40.70827312003004" lon="9.476536919736432"><ele>433.0</ele><time>2026-04-30T15:08:51.005Z</time></trkpt><trkpt lat="40.70818264359247" lon="9.476357125669965"><ele>433.33333333333337</ele><time>2026-04-30T15:08:52.005Z</time></trkpt><trkpt lat="40.7081012472255" lon="9.47617977583434"><ele>433.66666666666663</ele><time>2026-04-30T15:08:53.005Z</time></trkpt><trkpt lat="40.70803721097165" lon="9.475990935267047"><ele>434.0</ele><time>2026-04-30T15:08:54.005Z</time></trkpt><trkpt lat="40.7079965688666" lon="9.475804094226813"><ele>434.0</ele><time>2026-04-30T15:08:55.005Z</time></trkpt><trkpt lat="40.70797215030843" lon="9.475609424636584"><ele>434.0</ele><time>2026-04-30T15:08:56.005Z</time></trkpt><trkpt lat="40.70796418717996" lon="9.47540885435304"><ele>434.0</ele><time>2026-04-30T15:08:57.005Z</time></trkpt><trkpt lat="40.707966791276476" lon="9.475199296432763"><ele>433.3333333333333</ele><time>2026-04-30T15:08:58.005Z</time></trkpt><trkpt lat="40.70797791580343" lon="9.474955766183559"><ele>432.66666666666663</ele><time>2026-04-30T15:08:59.005Z</time></trkpt><trkpt lat="40.70799530228724" lon="9.474696653176428"><ele>432.0</ele><time>2026-04-30T15:09:00.005Z</time></trkpt><trkpt lat="40.70801356954656" lon="9.474419338661901"><ele>430.66666666666663</ele><time>2026-04-30T15:09:01.005Z</time></trkpt><trkpt lat="40.708030548133664" lon="9.474130115073327"><ele>429.3333333333333</ele><time>2026-04-30T15:09:02.005Z</time></trkpt><trkpt lat="40.70804873727389" lon="9.473840823123306"><ele>428.0</ele><time>2026-04-30T15:09:03.005Z</time></trkpt><trkpt lat="40.70806770905496" lon="9.473545905922325"><ele>424.0</ele><time>2026-04-30T15:09:04.005Z</time></trkpt><trkpt lat="40.70808514578544" lon="9.473252726836384"><ele>420.0</ele><time>2026-04-30T15:09:05.005Z</time></trkpt><trkpt lat="40.70810256678743" lon="9.472951294895578"><ele>420.0</ele><time>2026-04-30T15:09:06.005Z</time></trkpt><trkpt lat="40.70812000200883" lon="9.47265159049549"><ele>420.0</ele><time>2026-04-30T15:09:07.005Z</time></trkpt><trkpt lat="40.70813694974987" lon="9.472359670341472"><ele>421.0</ele><time>2026-04-30T15:09:08.005Z</time></trkpt><trkpt lat="40.70815457583141" lon="9.472067425839022"><ele>422.0</ele><time>2026-04-30T15:09:09.005Z</time></trkpt><trkpt lat="40.708153968232004" lon="9.471794714718616"><ele>423.0</ele><time>2026-04-30T15:09:10.005Z</time></trkpt><trkpt lat="40.70816953029432" lon="9.47152077918594"><ele>423.66666666666663</ele><time>2026-04-30T15:09:11.005Z</time></trkpt><trkpt lat="40.70817909843666" lon="9.471250110885368"><ele>424.3333333333333</ele><time>2026-04-30T15:09:12.005Z</time></trkpt><trkpt lat="40.708179423943335" lon="9.470986813752381"><ele>425.0</ele><time>2026-04-30T15:09:13.005Z</time></trkpt><trkpt lat="40.708161079982396" lon="9.470738417849551"><ele>425.0</ele><time>2026-04-30T15:09:14.005Z</time></trkpt><trkpt lat="40.70812695073442" lon="9.470505595129966"><ele>425.0</ele><time>2026-04-30T15:09:15.005Z</time></trkpt><trkpt lat="40.70808370000346" lon="9.47027350359956"><ele>425.0</ele><time>2026-04-30T15:09:16.005Z</time></trkpt><trkpt lat="40.70802291203391" lon="9.470044880535115"><ele>425.0</ele><time>2026-04-30T15:09:17.005Z</time></trkpt><trkpt lat="40.70794057445073" lon="9.469818526618752"><ele>425.0</ele><time>2026-04-30T15:09:18.005Z</time></trkpt><trkpt lat="40.70784461683979" lon="9.469595708555298"><ele>425.0</ele><time>2026-04-30T15:09:19.005Z</time></trkpt><trkpt lat="40.707740376903494" lon="9.46936648526952"><ele>425.0</ele><time>2026-04-30T15:09:20.005Z</time></trkpt><trkpt lat="40.70763116482202" lon="9.469129691212284"><ele>425.0</ele><time>2026-04-30T15:09:21.005Z</time></trkpt><trkpt lat="40.707496771153615" lon="9.468885476505577"><ele>425.0</ele><time>2026-04-30T15:09:22.005Z</time></trkpt><trkpt lat="40.70736694242438" lon="9.468644867197245"><ele>425.0</ele><time>2026-04-30T15:09:23.005Z</time></trkpt><trkpt lat="40.70724111286295" lon="9.468396930091398"><ele>425.0</ele><time>2026-04-30T15:09:24.005Z</time></trkpt><trkpt lat="40.707115793837794" lon="9.468143015744435"><ele>426.5</ele><time>2026-04-30T15:09:25.005Z</time></trkpt><trkpt lat="40.70699361461513" lon="9.467891621470235"><ele>428.0</ele><time>2026-04-30T15:09:26.005Z</time></trkpt><trkpt lat="40.70686773823282" lon="9.467632307398853"><ele>428.0</ele><time>2026-04-30T15:09:27.005Z</time></trkpt><trkpt lat="40.70673892451004" lon="9.467370206407052"><ele>428.0</ele><time>2026-04-30T15:09:28.005Z</time></trkpt><trkpt lat="40.70660467086553" lon="9.467107612061648"><ele>428.5</ele><time>2026-04-30T15:09:29.005Z</time></trkpt><trkpt lat="40.70647310607503" lon="9.466842267470414"><ele>429.0</ele><time>2026-04-30T15:09:30.005Z</time></trkpt><trkpt lat="40.706348225267476" lon="9.466590833884176"><ele>429.0</ele><time>2026-04-30T15:09:31.005Z</time></trkpt><trkpt lat="40.70623292034242" lon="9.466362588658463"><ele>429.0</ele><time>2026-04-30T15:09:32.005Z</time></trkpt><trkpt lat="40.706124651711875" lon="9.466147869975897"><ele>429.0</ele><time>2026-04-30T15:09:33.005Z</time></trkpt><trkpt lat="40.70602656915188" lon="9.46595263322811"><ele>429.0</ele><time>2026-04-30T15:09:34.005Z</time></trkpt><trkpt lat="40.70594675489286" lon="9.465760950128356"><ele>429.0</ele><time>2026-04-30T15:09:35.005Z</time></trkpt><trkpt lat="40.705879105835486" lon="9.465575444603962"><ele>429.0</ele><time>2026-04-30T15:09:36.005Z</time></trkpt><trkpt lat="40.70583048603567" lon="9.465400397289624"><ele>429.0</ele><time>2026-04-30T15:09:37.005Z</time></trkpt><trkpt lat="40.7057933752116" lon="9.46522180340389"><ele>429.0</ele><time>2026-04-30T15:09:38.005Z</time></trkpt><trkpt lat="40.70578380493621" lon="9.465025035682485"><ele>429.0</ele><time>2026-04-30T15:09:39.005Z</time></trkpt><trkpt lat="40.70578027903423" lon="9.464828476986247"><ele>429.0</ele><time>2026-04-30T15:09:40.005Z</time></trkpt><trkpt lat="40.705766600046736" lon="9.464653738142772"><ele>429.0</ele><time>2026-04-30T15:09:41.005Z</time></trkpt><trkpt lat="40.70575099954692" lon="9.464481022499987"><ele>429.0</ele><time>2026-04-30T15:09:42.005Z</time></trkpt><trkpt lat="40.705730788116064" lon="9.464301984893721"><ele>429.0</ele><time>2026-04-30T15:09:43.005Z</time></trkpt><trkpt lat="40.70570106660185" lon="9.464130727011563"><ele>429.0</ele><time>2026-04-30T15:09:44.005Z</time></trkpt><trkpt lat="40.70565745622122" lon="9.463983239371693"><ele>429.0</ele><time>2026-04-30T15:09:45.005Z</time></trkpt><trkpt lat="40.705591505912096" lon="9.463843695578722"><ele>429.0</ele><time>2026-04-30T15:09:46.005Z</time></trkpt><trkpt lat="40.70551201442758" lon="9.463706344245036"><ele>429.0</ele><time>2026-04-30T15:09:47.005Z</time></trkpt><trkpt lat="40.705406813903075" lon="9.463576002929505"><ele>429.0</ele><time>2026-04-30T15:09:48.005Z</time></trkpt><trkpt lat="40.70528438832957" lon="9.463445368153456"><ele>429.0</ele><time>2026-04-30T15:09:49.005Z</time></trkpt><trkpt lat="40.705142885371046" lon="9.463304881452375"><ele>429.0</ele><time>2026-04-30T15:09:50.005Z</time></trkpt><trkpt lat="40.70498682095657" lon="9.463153000866727"><ele>429.0</ele><time>2026-04-30T15:09:51.005Z</time></trkpt><trkpt lat="40.70483373454249" lon="9.463002854498315"><ele>428.66666666666663</ele><time>2026-04-30T15:09:52.005Z</time></trkpt><trkpt lat="40.704681025276344" lon="9.462854040071997"><ele>428.3333333333333</ele><time>2026-04-30T15:09:53.005Z</time></trkpt><trkpt lat="40.7045238344863" lon="9.462696061007495"><ele>428.0</ele><time>2026-04-30T15:09:54.005Z</time></trkpt><trkpt lat="40.704369821320526" lon="9.46254014012498"><ele>429.0</ele><time>2026-04-30T15:09:55.005Z</time></trkpt><trkpt lat="40.704214226946384" lon="9.462385684796207"><ele>430.0</ele><time>2026-04-30T15:09:56.005Z</time></trkpt><trkpt lat="40.7040600418276" lon="9.462220201575509"><ele>431.0</ele><time>2026-04-30T15:09:57.005Z</time></trkpt><trkpt lat="40.703914801299725" lon="9.462039795313078"><ele>432.3333333333333</ele><time>2026-04-30T15:09:58.005Z</time></trkpt><trkpt lat="40.70377469632056" lon="9.461847815910867"><ele>433.66666666666663</ele><time>2026-04-30T15:09:59.005Z</time></trkpt><trkpt lat="40.703635455695476" lon="9.461645476892718"><ele>435.0</ele><time>2026-04-30T15:10:00.005Z</time></trkpt><trkpt lat="40.70349437536385" lon="9.461438063306343"><ele>436.33333333333337</ele><time>2026-04-30T15:10:01.005Z</time></trkpt><trkpt lat="40.703351534346965" lon="9.461218823138168"><ele>437.6666666666667</ele><time>2026-04-30T15:10:02.005Z</time></trkpt><trkpt lat="40.703201866151545" lon="9.46099549245484"><ele>439.0</ele><time>2026-04-30T15:10:03.005Z</time></trkpt><trkpt lat="40.70305644274636" lon="9.460779425582269"><ele>439.0</ele><time>2026-04-30T15:10:04.005Z</time></trkpt><trkpt lat="40.70290722405089" lon="9.460561687997696"><ele>439.0</ele><time>2026-04-30T15:10:05.005Z</time></trkpt><trkpt lat="40.70276149339427" lon="9.460336913303347"><ele>439.0</ele><time>2026-04-30T15:10:06.005Z</time></trkpt><trkpt lat="40.70262035909207" lon="9.46012121318539"><ele>439.0</ele><time>2026-04-30T15:10:07.005Z</time></trkpt><trkpt lat="40.7024735669926" lon="9.45990308965162"><ele>439.0</ele><time>2026-04-30T15:10:08.005Z</time></trkpt><trkpt lat="40.702327145160936" lon="9.459688306957338"><ele>439.0</ele><time>2026-04-30T15:10:09.005Z</time></trkpt><trkpt lat="40.70218027729294" lon="9.459470237395715"><ele>439.6666666666667</ele><time>2026-04-30T15:10:10.005Z</time></trkpt><trkpt lat="40.70204485270837" lon="9.459260332056624"><ele>440.33333333333337</ele><time>2026-04-30T15:10:11.005Z</time></trkpt><trkpt lat="40.70191538929031" lon="9.459065227509631"><ele>441.0</ele><time>2026-04-30T15:10:12.005Z</time></trkpt><trkpt lat="40.70179756834608" lon="9.458883553607807"><ele>439.5</ele><time>2026-04-30T15:10:13.005Z</time></trkpt><trkpt lat="40.70168956048316" lon="9.458723760000167"><ele>438.0</ele><time>2026-04-30T15:10:14.005Z</time></trkpt><trkpt lat="40.70158962396111" lon="9.458582366269399"><ele>436.5</ele><time>2026-04-30T15:10:15.005Z</time></trkpt><trkpt lat="40.701488336237254" lon="9.458457989017118"><ele>435.0</ele><time>2026-04-30T15:10:16.005Z</time></trkpt><trkpt lat="40.70138491124855" lon="9.458356273509317"><ele>435.0</ele><time>2026-04-30T15:10:17.005Z</time></trkpt><trkpt lat="40.70126807464139" lon="9.458285455962145"><ele>435.0</ele><time>2026-04-30T15:10:18.005Z</time></trkpt><trkpt lat="40.701137083373446" lon="9.458244575889218"><ele>435.0</ele><time>2026-04-30T15:10:19.005Z</time></trkpt><trkpt lat="40.70099682168311" lon="9.458230401713552"><ele>435.0</ele><time>2026-04-30T15:10:20.005Z</time></trkpt><trkpt lat="40.70085363625951" lon="9.458241276214027"><ele>434.66666666666663</ele><time>2026-04-30T15:10:21.005Z</time></trkpt><trkpt lat="40.700700774163174" lon="9.458264417131456"><ele>434.3333333333333</ele><time>2026-04-30T15:10:22.005Z</time></trkpt><trkpt lat="40.7005406491525" lon="9.45829703216931"><ele>434.0</ele><time>2026-04-30T15:10:23.005Z</time></trkpt><trkpt lat="40.70038569558042" lon="9.458335781589158"><ele>435.0</ele><time>2026-04-30T15:10:24.005Z</time></trkpt><trkpt lat="40.70022262756938" lon="9.458369997959242"><ele>436.0</ele><time>2026-04-30T15:10:25.005Z</time></trkpt><trkpt lat="40.70006562332817" lon="9.458398045684467"><ele>437.0</ele><time>2026-04-30T15:10:26.005Z</time></trkpt><trkpt lat="40.69990197117166" lon="9.458424416024464"><ele>437.0</ele><time>2026-04-30T15:10:27.005Z</time></trkpt><trkpt lat="40.699738150432246" lon="9.458437736510746"><ele>437.0</ele><time>2026-04-30T15:10:28.005Z</time></trkpt><trkpt lat="40.69956540948968" lon="9.45843225005285"><ele>437.0</ele><time>2026-04-30T15:10:29.005Z</time></trkpt><trkpt lat="40.69939680130862" lon="9.458405950413669"><ele>438.3333333333333</ele><time>2026-04-30T15:10:30.005Z</time></trkpt><trkpt lat="40.699234144547944" lon="9.458349799938052"><ele>439.66666666666663</ele><time>2026-04-30T15:10:31.005Z</time></trkpt><trkpt lat="40.699069373337196" lon="9.458292162589624"><ele>441.0</ele><time>2026-04-30T15:10:32.005Z</time></trkpt><trkpt lat="40.698909535250365" lon="9.458243467392467"><ele>441.0</ele><time>2026-04-30T15:10:33.005Z</time></trkpt><trkpt lat="40.698750808054164" lon="9.458192818590144"><ele>441.0</ele><time>2026-04-30T15:10:34.005Z</time></trkpt><trkpt lat="40.698609534882486" lon="9.45813378918661"><ele>441.0</ele><time>2026-04-30T15:10:35.005Z</time></trkpt><trkpt lat="40.69848477328323" lon="9.458062306895155"><ele>441.0</ele><time>2026-04-30T15:10:36.005Z</time></trkpt><trkpt lat="40.69836505968428" lon="9.457975590389974"><ele>440.0</ele><time>2026-04-30T15:10:37.005Z</time></trkpt><trkpt lat="40.6982414466684" lon="9.457872643275845"><ele>439.0</ele><time>2026-04-30T15:10:38.005Z</time></trkpt><trkpt lat="40.698114775671584" lon="9.457761825178304"><ele>438.0</ele><time>2026-04-30T15:10:39.005Z</time></trkpt><trkpt lat="40.69798610939509" lon="9.457633448169936"><ele>438.0</ele><time>2026-04-30T15:10:40.005Z</time></trkpt><trkpt lat="40.69786209270514" lon="9.457494741499284"><ele>438.0</ele><time>2026-04-30T15:10:41.005Z</time></trkpt><trkpt lat="40.69775087928953" lon="9.457350579692143"><ele>438.0</ele><time>2026-04-30T15:10:42.005Z</time></trkpt><trkpt lat="40.69765085468024" lon="9.457197723658147"><ele>435.33333333333337</ele><time>2026-04-30T15:10:43.005Z</time></trkpt><trkpt lat="40.69755995666782" lon="9.457037979502552"><ele>432.6666666666667</ele><time>2026-04-30T15:10:44.005Z</time></trkpt><trkpt lat="40.69748501576207" lon="9.456869613071465"><ele>430.0</ele><time>2026-04-30T15:10:45.005Z</time></trkpt><trkpt lat="40.69742073898715" lon="9.456687058436792"><ele>430.0</ele><time>2026-04-30T15:10:46.005Z</time></trkpt><trkpt lat="40.697363477784776" lon="9.45647676733124"><ele>430.0</ele><time>2026-04-30T15:10:47.005Z</time></trkpt><trkpt lat="40.697309189715014" lon="9.4562471938522"><ele>430.0</ele><time>2026-04-30T15:10:48.005Z</time></trkpt><trkpt lat="40.697260465559324" lon="9.45602538500092"><ele>432.0</ele><time>2026-04-30T15:10:49.005Z</time></trkpt><trkpt lat="40.69720567195738" lon="9.455811446607468"><ele>434.0</ele><time>2026-04-30T15:10:50.005Z</time></trkpt><trkpt lat="40.697164730532684" lon="9.45558601569998"><ele>436.0</ele><time>2026-04-30T15:10:51.005Z</time></trkpt><trkpt lat="40.69711579764208" lon="9.45536558308823"><ele>436.25</ele><time>2026-04-30T15:10:52.005Z</time></trkpt><trkpt lat="40.69706355323284" lon="9.455194728918864"><ele>436.5</ele><time>2026-04-30T15:10:53.005Z</time></trkpt><trkpt lat="40.697049097686964" lon="9.455031448175601"><ele>436.75</ele><time>2026-04-30T15:10:54.005Z</time></trkpt><trkpt lat="40.697048825374296" lon="9.454874262758784"><ele>437.0</ele><time>2026-04-30T15:10:55.005Z</time></trkpt><trkpt lat="40.697062436901014" lon="9.454737696072652"><ele>437.0</ele><time>2026-04-30T15:10:56.005Z</time></trkpt><trkpt lat="40.697091710507515" lon="9.454601196910524"><ele>437.00000000000006</ele><time>2026-04-30T15:10:57.005Z</time></trkpt><trkpt lat="40.69713953583305" lon="9.454468369451897"><ele>437.00000000000006</ele><time>2026-04-30T15:10:58.005Z</time></trkpt><trkpt lat="40.69720514425814" lon="9.454348488388115"><ele>437.0</ele><time>2026-04-30T15:10:59.005Z</time></trkpt><trkpt lat="40.69728520467519" lon="9.454244266367692"><ele>437.0</ele><time>2026-04-30T15:11:00.005Z</time></trkpt><trkpt lat="40.697377803145315" lon="9.454165171162485"><ele>437.0</ele><time>2026-04-30T15:11:01.005Z</time></trkpt><trkpt lat="40.697488737411604" lon="9.454100846260879"><ele>437.0</ele><time>2026-04-30T15:11:02.005Z</time></trkpt><trkpt lat="40.69760979933398" lon="9.454035682426792"><ele>437.0</ele><time>2026-04-30T15:11:03.005Z</time></trkpt><trkpt lat="40.697741091331835" lon="9.453955799338246"><ele>437.0</ele><time>2026-04-30T15:11:04.005Z</time></trkpt><trkpt lat="40.69787047001166" lon="9.453866294347257"><ele>437.5</ele><time>2026-04-30T15:11:05.005Z</time></trkpt><trkpt lat="40.6979966941281" lon="9.453789693793205"><ele>438.0</ele><time>2026-04-30T15:11:06.005Z</time></trkpt><trkpt lat="40.698120439917055" lon="9.45371531637813"><ele>438.5</ele><time>2026-04-30T15:11:07.005Z</time></trkpt><trkpt lat="40.69823926925415" lon="9.453641863778655"><ele>439.0</ele><time>2026-04-30T15:11:08.005Z</time></trkpt><trkpt lat="40.69835070277929" lon="9.453575438788212"><ele>439.0</ele><time>2026-04-30T15:11:09.005Z</time></trkpt><trkpt lat="40.698440599500515" lon="9.453487833054101"><ele>439.0</ele><time>2026-04-30T15:11:10.005Z</time></trkpt><trkpt lat="40.698524293203256" lon="9.453391361339447"><ele>439.0</ele><time>2026-04-30T15:11:11.005Z</time></trkpt><trkpt lat="40.698593982788154" lon="9.453266646101534"><ele>439.0</ele><time>2026-04-30T15:11:12.005Z</time></trkpt><trkpt lat="40.69864963135279" lon="9.453126807357341"><ele>441.25</ele><time>2026-04-30T15:11:13.005Z</time></trkpt><trkpt lat="40.698691666858394" lon="9.452977970992364"><ele>443.5</ele><time>2026-04-30T15:11:14.005Z</time></trkpt><trkpt lat="40.69871179344157" lon="9.452826963517747"><ele>445.75</ele><time>2026-04-30T15:11:15.005Z</time></trkpt><trkpt lat="40.69871815556708" lon="9.452670368509501"><ele>448.0</ele><time>2026-04-30T15:11:16.005Z</time></trkpt><trkpt lat="40.69870993259304" lon="9.452507409138565"><ele>448.25</ele><time>2026-04-30T15:11:17.005Z</time></trkpt><trkpt lat="40.69867928982706" lon="9.452345814329457"><ele>448.5</ele><time>2026-04-30T15:11:18.005Z</time></trkpt><trkpt lat="40.69863521867071" lon="9.452189425611593"><ele>448.75</ele><time>2026-04-30T15:11:19.005Z</time></trkpt><trkpt lat="40.698584188895076" lon="9.452046758258543"><ele>449.0</ele><time>2026-04-30T15:11:20.005Z</time></trkpt><trkpt lat="40.698528291153" lon="9.451890932560708"><ele>448.0</ele><time>2026-04-30T15:11:21.005Z</time></trkpt><trkpt lat="40.698462775288675" lon="9.451728214807805"><ele>447.0</ele><time>2026-04-30T15:11:22.005Z</time></trkpt><trkpt lat="40.69839513910053" lon="9.451547589117192"><ele>446.0</ele><time>2026-04-30T15:11:23.005Z</time></trkpt><trkpt lat="40.6983337427553" lon="9.451337551057623"><ele>448.66666666666663</ele><time>2026-04-30T15:11:24.005Z</time></trkpt><trkpt lat="40.69827579552245" lon="9.451140296907226"><ele>451.33333333333337</ele><time>2026-04-30T15:11:25.005Z</time></trkpt><trkpt lat="40.69825175960978" lon="9.45092004678902"><ele>454.0</ele><time>2026-04-30T15:11:26.005Z</time></trkpt><trkpt lat="40.69826625256748" lon="9.450699225509254"><ele>454.0</ele><time>2026-04-30T15:11:27.005Z</time></trkpt><trkpt lat="40.69828112325538" lon="9.450490106845345"><ele>454.0</ele><time>2026-04-30T15:11:28.005Z</time></trkpt><trkpt lat="40.69829488189821" lon="9.45027622209122"><ele>454.0</ele><time>2026-04-30T15:11:29.005Z</time></trkpt><trkpt lat="40.69831447069719" lon="9.45003157228627"><ele>454.0</ele><time>2026-04-30T15:11:30.005Z</time></trkpt><trkpt lat="40.69832098845711" lon="9.449797564832448"><ele>454.0</ele><time>2026-04-30T15:11:32.005Z</time></trkpt><trkpt lat="40.698323836179476" lon="9.44963109802233"><ele>454.0</ele><time>2026-04-30T15:11:33.005Z</time></trkpt><trkpt lat="40.69830461584368" lon="9.449489559944734"><ele>454.0</ele><time>2026-04-30T15:11:34.005Z</time></trkpt><trkpt lat="40.69825586416327" lon="9.449355114686503"><ele>454.0</ele><time>2026-04-30T15:11:35.005Z</time></trkpt><trkpt lat="40.69818143925847" lon="9.44922923173544"><ele>454.0</ele><time>2026-04-30T15:11:36.005Z</time></trkpt><trkpt lat="40.698085260967495" lon="9.449103209830378"><ele>454.0</ele><time>2026-04-30T15:11:37.005Z</time></trkpt><trkpt lat="40.697968384453176" lon="9.448957824296157"><ele>454.0</ele><time>2026-04-30T15:11:38.005Z</time></trkpt><trkpt lat="40.69783706839043" lon="9.448791518744653"><ele>454.6666666666667</ele><time>2026-04-30T15:11:39.005Z</time></trkpt><trkpt lat="40.69770557942022" lon="9.448616313617633"><ele>455.33333333333337</ele><time>2026-04-30T15:11:40.006Z</time></trkpt><trkpt lat="40.6975671178096" lon="9.44843055854582"><ele>456.0</ele><time>2026-04-30T15:11:41.006Z</time></trkpt><trkpt lat="40.697425064765746" lon="9.448238511608436"><ele>456.0</ele><time>2026-04-30T15:11:42.006Z</time></trkpt><trkpt lat="40.6972988453528" lon="9.448063729196956"><ele>456.0</ele><time>2026-04-30T15:11:43.006Z</time></trkpt><trkpt lat="40.69719228993424" lon="9.44790314728039"><ele>456.0</ele><time>2026-04-30T15:11:44.006Z</time></trkpt><trkpt lat="40.69710546694693" lon="9.447735680776244"><ele>459.0</ele><time>2026-04-30T15:11:45.006Z</time></trkpt><trkpt lat="40.69705827945351" lon="9.447535028668787"><ele>462.0</ele><time>2026-04-30T15:11:46.006Z</time></trkpt><trkpt lat="40.69700603386016" lon="9.447331378440607"><ele>465.0</ele><time>2026-04-30T15:11:47.006Z</time></trkpt><trkpt lat="40.696953397470935" lon="9.447124326455697"><ele>466.66666666666663</ele><time>2026-04-30T15:11:48.006Z</time></trkpt><trkpt lat="40.69689836898008" lon="9.446907864734063"><ele>468.3333333333333</ele><time>2026-04-30T15:11:49.006Z</time></trkpt><trkpt lat="40.69684149070836" lon="9.446684126700715"><ele>470.0</ele><time>2026-04-30T15:11:50.006Z</time></trkpt><trkpt lat="40.6967884081202" lon="9.446460025480334"><ele>470.0</ele><time>2026-04-30T15:11:51.006Z</time></trkpt><trkpt lat="40.6967428851116" lon="9.446236887108364"><ele>470.0</ele><time>2026-04-30T15:11:52.006Z</time></trkpt><trkpt lat="40.69670279074978" lon="9.44600276507932"><ele>470.0</ele><time>2026-04-30T15:11:53.006Z</time></trkpt><trkpt lat="40.69666880852136" lon="9.445758799112218"><ele>470.0</ele><time>2026-04-30T15:11:54.006Z</time></trkpt><trkpt lat="40.69663849191115" lon="9.445518649719192"><ele>470.0</ele><time>2026-04-30T15:11:55.006Z</time></trkpt><trkpt lat="40.69661083685615" lon="9.44526943401447"><ele>470.0</ele><time>2026-04-30T15:11:56.006Z</time></trkpt><trkpt lat="40.696582472691986" lon="9.445011533935565"><ele>470.66666666666663</ele><time>2026-04-30T15:11:57.006Z</time></trkpt><trkpt lat="40.696548180487305" lon="9.444759940763682"><ele>471.33333333333337</ele><time>2026-04-30T15:11:58.006Z</time></trkpt><trkpt lat="40.69650248821391" lon="9.444505015019242"><ele>472.0</ele><time>2026-04-30T15:11:59.006Z</time></trkpt><trkpt lat="40.69642749963677" lon="9.444251952921384"><ele>473.0</ele><time>2026-04-30T15:12:00.006Z</time></trkpt><trkpt lat="40.696364982790755" lon="9.443990946976449"><ele>474.0</ele><time>2026-04-30T15:12:01.006Z</time></trkpt><trkpt lat="40.69631581990798" lon="9.443719782119867"><ele>475.0</ele><time>2026-04-30T15:12:02.006Z</time></trkpt><trkpt lat="40.69623686554914" lon="9.443457544056441"><ele>477.6666666666667</ele><time>2026-04-30T15:12:03.006Z</time></trkpt><trkpt lat="40.69618689508586" lon="9.443181488416384"><ele>480.33333333333337</ele><time>2026-04-30T15:12:04.006Z</time></trkpt><trkpt lat="40.69611925397061" lon="9.442904007835224"><ele>483.0</ele><time>2026-04-30T15:12:05.006Z</time></trkpt><trkpt lat="40.696038951400084" lon="9.442634396781383"><ele>475.66666666666663</ele><time>2026-04-30T15:12:06.006Z</time></trkpt><trkpt lat="40.69597518981373" lon="9.442376882347927"><ele>468.3333333333333</ele><time>2026-04-30T15:12:07.006Z</time></trkpt><trkpt lat="40.695916402470395" lon="9.442139670628"><ele>461.0</ele><time>2026-04-30T15:12:08.006Z</time></trkpt><trkpt lat="40.69585942372401" lon="9.44189897836187"><ele>461.0</ele><time>2026-04-30T15:12:09.006Z</time></trkpt><trkpt lat="40.69580865513211" lon="9.441658311444968"><ele>461.0</ele><time>2026-04-30T15:12:10.006Z</time></trkpt><trkpt lat="40.69577068158183" lon="9.44143497134597"><ele>461.0</ele><time>2026-04-30T15:12:11.006Z</time></trkpt><trkpt lat="40.69575110333682" lon="9.441209563160895"><ele>462.25</ele><time>2026-04-30T15:12:12.006Z</time></trkpt><trkpt lat="40.69572803608731" lon="9.44099631797308"><ele>463.5</ele><time>2026-04-30T15:12:13.006Z</time></trkpt><trkpt lat="40.69570159759725" lon="9.440800411281861"><ele>464.75</ele><time>2026-04-30T15:12:14.006Z</time></trkpt><trkpt lat="40.69570275367566" lon="9.440632068495248"><ele>466.0</ele><time>2026-04-30T15:12:15.006Z</time></trkpt><trkpt lat="40.6957173627264" lon="9.440490667398297"><ele>464.0</ele><time>2026-04-30T15:12:16.006Z</time></trkpt><trkpt lat="40.69577199659579" lon="9.44038173372116"><ele>462.0</ele><time>2026-04-30T15:12:17.006Z</time></trkpt><trkpt lat="40.69583299796833" lon="9.440249278995251"><ele>460.0</ele><time>2026-04-30T15:12:18.006Z</time></trkpt><trkpt lat="40.69591418348101" lon="9.440100996809031"><ele>458.0</ele><time>2026-04-30T15:12:19.006Z</time></trkpt><trkpt lat="40.69597749824353" lon="9.439917595097812"><ele>458.0</ele><time>2026-04-30T15:12:20.006Z</time></trkpt><trkpt lat="40.69604590312462" lon="9.439740100924826"><ele>458.0</ele><time>2026-04-30T15:12:21.006Z</time></trkpt><trkpt lat="40.69609948457168" lon="9.439564786810909"><ele>458.0</ele><time>2026-04-30T15:12:22.006Z</time></trkpt><trkpt lat="40.6961428057461" lon="9.4394137195398"><ele>458.0</ele><time>2026-04-30T15:12:23.006Z</time></trkpt><trkpt lat="40.696162875444436" lon="9.439297183191513"><ele>458.8333333333333</ele><time>2026-04-30T15:12:24.006Z</time></trkpt><trkpt lat="40.6961594205705" lon="9.439188969031072"><ele>459.66666666666663</ele><time>2026-04-30T15:12:25.006Z</time></trkpt><trkpt lat="40.696133387853955" lon="9.439089077558256"><ele>460.5</ele><time>2026-04-30T15:12:26.006Z</time></trkpt><trkpt lat="40.69608457263667" lon="9.438996984452004"><ele>461.33333333333337</ele><time>2026-04-30T15:12:27.006Z</time></trkpt><trkpt lat="40.69601828382484" lon="9.438920784698093"><ele>462.1666666666667</ele><time>2026-04-30T15:12:28.006Z</time></trkpt><trkpt lat="40.695926437505875" lon="9.43885839276505"><ele>463.0</ele><time>2026-04-30T15:12:29.006Z</time></trkpt><trkpt lat="40.69582407824062" lon="9.438807709846788"><ele>468.0</ele><time>2026-04-30T15:12:30.006Z</time></trkpt><trkpt lat="40.695693095512155" lon="9.438762442051727"><ele>473.0</ele><time>2026-04-30T15:12:31.006Z</time></trkpt><trkpt lat="40.6955409429396" lon="9.43873085342628"><ele>478.0</ele><time>2026-04-30T15:12:32.006Z</time></trkpt><trkpt lat="40.695370711211226" lon="9.438696584670335"><ele>474.33333333333337</ele><time>2026-04-30T15:12:33.006Z</time></trkpt><trkpt lat="40.695197123823625" lon="9.43866282161477"><ele>470.66666666666663</ele><time>2026-04-30T15:12:34.006Z</time></trkpt><trkpt lat="40.695021286150336" lon="9.438625213725729"><ele>467.0</ele><time>2026-04-30T15:12:35.006Z</time></trkpt><trkpt lat="40.69486158415175" lon="9.438589030664613"><ele>467.0</ele><time>2026-04-30T15:12:36.006Z</time></trkpt><trkpt lat="40.694720495707784" lon="9.438561283272518"><ele>467.0</ele><time>2026-04-30T15:12:37.006Z</time></trkpt><trkpt lat="40.694590233769155" lon="9.438554153065892"><ele>467.0</ele><time>2026-04-30T15:12:38.006Z</time></trkpt><trkpt lat="40.694468719212665" lon="9.438574152652166"><ele>467.0</ele><time>2026-04-30T15:12:39.006Z</time></trkpt><trkpt lat="40.69436313607475" lon="9.438626428334425"><ele>464.25</ele><time>2026-04-30T15:12:40.006Z</time></trkpt><trkpt lat="40.6942710085444" lon="9.438701248151583"><ele>461.5</ele><time>2026-04-30T15:12:41.006Z</time></trkpt><trkpt lat="40.69418154217808" lon="9.438808002809338"><ele>458.75</ele><time>2026-04-30T15:12:42.006Z</time></trkpt><trkpt lat="40.69409546803103" lon="9.438943064065052"><ele>456.0</ele><time>2026-04-30T15:12:43.006Z</time></trkpt><trkpt lat="40.69400753396008" lon="9.439098381846915"><ele>455.33333333333337</ele><time>2026-04-30T15:12:44.006Z</time></trkpt><trkpt lat="40.69391524486747" lon="9.439267208166891"><ele>454.6666666666667</ele><time>2026-04-30T15:12:45.006Z</time></trkpt><trkpt lat="40.693821480944166" lon="9.439439314063248"><ele>454.0</ele><time>2026-04-30T15:12:46.006Z</time></trkpt><trkpt lat="40.69372025831224" lon="9.439612895200273"><ele>454.25</ele><time>2026-04-30T15:12:47.006Z</time></trkpt><trkpt lat="40.69361934702558" lon="9.43977658847543"><ele>454.5</ele><time>2026-04-30T15:12:48.006Z</time></trkpt><trkpt lat="40.69352890589385" lon="9.43992310436307"><ele>454.75</ele><time>2026-04-30T15:12:49.006Z</time></trkpt><trkpt lat="40.693431643527575" lon="9.440050544527331"><ele>455.0</ele><time>2026-04-30T15:12:50.006Z</time></trkpt><trkpt lat="40.69331769214704" lon="9.440169924307378"><ele>455.0</ele><time>2026-04-30T15:12:51.006Z</time></trkpt><trkpt lat="40.693186977589" lon="9.440275815479414"><ele>455.0</ele><time>2026-04-30T15:12:52.006Z</time></trkpt><trkpt lat="40.69304610903492" lon="9.440370764418208"><ele>455.0</ele><time>2026-04-30T15:12:53.006Z</time></trkpt><trkpt lat="40.69290844740451" lon="9.440455593718463"><ele>455.0</ele><time>2026-04-30T15:12:54.006Z</time></trkpt><trkpt lat="40.69277465530593" lon="9.440514997788119"><ele>455.0</ele><time>2026-04-30T15:12:55.006Z</time></trkpt><trkpt lat="40.69265453382236" lon="9.440548237222231"><ele>455.0</ele><time>2026-04-30T15:12:56.006Z</time></trkpt><trkpt lat="40.69253667484546" lon="9.440545634748167"><ele>455.0</ele><time>2026-04-30T15:12:57.006Z</time></trkpt><trkpt lat="40.69242670144975" lon="9.440513050956799"><ele>456.25</ele><time>2026-04-30T15:12:58.006Z</time></trkpt><trkpt lat="40.692330765025" lon="9.440457622020208"><ele>457.5</ele><time>2026-04-30T15:12:59.006Z</time></trkpt><trkpt lat="40.69222783818848" lon="9.440358382259312"><ele>458.75</ele><time>2026-04-30T15:13:00.006Z</time></trkpt><trkpt lat="40.69213985683985" lon="9.440244529594827"><ele>460.0</ele><time>2026-04-30T15:13:01.006Z</time></trkpt><trkpt lat="40.692078650634606" lon="9.440114531121445"><ele>460.0</ele><time>2026-04-30T15:13:02.006Z</time></trkpt><trkpt lat="40.69204893089924" lon="9.43996704911974"><ele>460.0</ele><time>2026-04-30T15:13:03.006Z</time></trkpt><trkpt lat="40.692024772407024" lon="9.43979438087118"><ele>460.0</ele><time>2026-04-30T15:13:04.006Z</time></trkpt><trkpt lat="40.69201332983697" lon="9.439613263913115"><ele>460.0</ele><time>2026-04-30T15:13:05.006Z</time></trkpt><trkpt lat="40.692012287732055" lon="9.439408503507668"><ele>464.33333333333337</ele><time>2026-04-30T15:13:06.006Z</time></trkpt><trkpt lat="40.69200804709612" lon="9.43919921681717"><ele>468.66666666666663</ele><time>2026-04-30T15:13:07.006Z</time></trkpt><trkpt lat="40.69200461653409" lon="9.438978238242857"><ele>473.0</ele><time>2026-04-30T15:13:08.006Z</time></trkpt><trkpt lat="40.69199902735713" lon="9.438771661464614"><ele>473.75</ele><time>2026-04-30T15:13:09.006Z</time></trkpt><trkpt lat="40.691972993873726" lon="9.43858134982053"><ele>474.5</ele><time>2026-04-30T15:13:10.006Z</time></trkpt><trkpt lat="40.69194057192715" lon="9.43839477104266"><ele>475.25</ele><time>2026-04-30T15:13:11.006Z</time></trkpt><trkpt lat="40.69188205305067" lon="9.438226092222132"><ele>476.0</ele><time>2026-04-30T15:13:12.006Z</time></trkpt><trkpt lat="40.6918032882404" lon="9.43807479168349"><ele>478.5</ele><time>2026-04-30T15:13:13.006Z</time></trkpt><trkpt lat="40.69170732406144" lon="9.437934777984502"><ele>481.0</ele><time>2026-04-30T15:13:14.006Z</time></trkpt><trkpt lat="40.69159618831206" lon="9.437809243938318"><ele>483.5</ele><time>2026-04-30T15:13:15.006Z</time></trkpt><trkpt lat="40.69146090706597" lon="9.437697982714324"><ele>486.0</ele><time>2026-04-30T15:13:16.006Z</time></trkpt><trkpt lat="40.69131862624088" lon="9.437601403069161"><ele>486.0</ele><time>2026-04-30T15:13:17.006Z</time></trkpt><trkpt lat="40.69116259845149" lon="9.437515381341695"><ele>486.0</ele><time>2026-04-30T15:13:18.006Z</time></trkpt><trkpt lat="40.69100596735095" lon="9.437424902888193"><ele>486.0</ele><time>2026-04-30T15:13:19.006Z</time></trkpt><trkpt lat="40.690836815220685" lon="9.437331418519731"><ele>485.66666666666663</ele><time>2026-04-30T15:13:20.006Z</time></trkpt><trkpt lat="40.690667077467054" lon="9.437236355133857"><ele>485.3333333333333</ele><time>2026-04-30T15:13:21.006Z</time></trkpt><trkpt lat="40.69050248274794" lon="9.437144376285191"><ele>485.0</ele><time>2026-04-30T15:13:22.006Z</time></trkpt><trkpt lat="40.69034062528129" lon="9.437047019299955"><ele>483.3333333333333</ele><time>2026-04-30T15:13:23.006Z</time></trkpt><trkpt lat="40.690194136624875" lon="9.436945957203436"><ele>481.66666666666663</ele><time>2026-04-30T15:13:24.006Z</time></trkpt><trkpt lat="40.69006854355632" lon="9.436843765039809"><ele>480.0</ele><time>2026-04-30T15:13:25.006Z</time></trkpt><trkpt lat="40.689959308989316" lon="9.436719990246"><ele>480.0</ele><time>2026-04-30T15:13:26.006Z</time></trkpt><trkpt lat="40.689867806239846" lon="9.436570149205009"><ele>480.0</ele><time>2026-04-30T15:13:27.006Z</time></trkpt><trkpt lat="40.68978150230262" lon="9.436391094187758"><ele>480.0</ele><time>2026-04-30T15:13:28.006Z</time></trkpt><trkpt lat="40.68970512155696" lon="9.436193402287344"><ele>484.66666666666663</ele><time>2026-04-30T15:13:29.006Z</time></trkpt><trkpt lat="40.68963119988278" lon="9.4359834319557"><ele>489.3333333333333</ele><time>2026-04-30T15:13:30.006Z</time></trkpt><trkpt lat="40.68955290957428" lon="9.435775671893802"><ele>494.0</ele><time>2026-04-30T15:13:31.006Z</time></trkpt><trkpt lat="40.68947435399762" lon="9.435573197155541"><ele>494.0</ele><time>2026-04-30T15:13:32.006Z</time></trkpt><trkpt lat="40.68937702282934" lon="9.435385133774403"><ele>494.0</ele><time>2026-04-30T15:13:33.006Z</time></trkpt><trkpt lat="40.68927183055568" lon="9.435218114094274"><ele>494.0</ele><time>2026-04-30T15:13:34.006Z</time></trkpt><trkpt lat="40.689147880101174" lon="9.43506119273276"><ele>494.0</ele><time>2026-04-30T15:13:35.006Z</time></trkpt><trkpt lat="40.68902404624954" lon="9.434902246864404"><ele>494.0</ele><time>2026-04-30T15:13:36.006Z</time></trkpt><trkpt lat="40.68890956031129" lon="9.434727736404085"><ele>494.0</ele><time>2026-04-30T15:13:37.006Z</time></trkpt><trkpt lat="40.68881663769397" lon="9.434544856528081"><ele>499.3333333333333</ele><time>2026-04-30T15:13:38.006Z</time></trkpt><trkpt lat="40.68873782394067" lon="9.434345195757007"><ele>504.66666666666663</ele><time>2026-04-30T15:13:39.006Z</time></trkpt><trkpt lat="40.688664727662584" lon="9.434129419995054"><ele>510.0</ele><time>2026-04-30T15:13:40.006Z</time></trkpt><trkpt lat="40.68860142414089" lon="9.433912757036593"><ele>500.0</ele><time>2026-04-30T15:13:41.006Z</time></trkpt><trkpt lat="40.68853597613696" lon="9.433705814532535"><ele>490.0</ele><time>2026-04-30T15:13:42.006Z</time></trkpt><trkpt lat="40.68848821066105" lon="9.433517305359471"><ele>480.0</ele><time>2026-04-30T15:13:43.006Z</time></trkpt><trkpt lat="40.68845735044962" lon="9.43334311039473"><ele>480.0</ele><time>2026-04-30T15:13:44.006Z</time></trkpt><trkpt lat="40.68845094984427" lon="9.433161080496072"><ele>480.0</ele><time>2026-04-30T15:13:45.006Z</time></trkpt><trkpt lat="40.68845894426565" lon="9.432969885690234"><ele>480.0</ele><time>2026-04-30T15:13:46.006Z</time></trkpt><trkpt lat="40.68848985809854" lon="9.432784735484883"><ele>480.0</ele><time>2026-04-30T15:13:47.006Z</time></trkpt><trkpt lat="40.68856169317477" lon="9.432627470487422"><ele>479.75</ele><time>2026-04-30T15:13:48.006Z</time></trkpt><trkpt lat="40.68863542429228" lon="9.432469350152147"><ele>479.5</ele><time>2026-04-30T15:13:49.006Z</time></trkpt><trkpt lat="40.688728518695555" lon="9.43232885782665"><ele>479.25</ele><time>2026-04-30T15:13:50.006Z</time></trkpt><trkpt lat="40.688841646593666" lon="9.432203423269279"><ele>479.0</ele><time>2026-04-30T15:13:51.006Z</time></trkpt><trkpt lat="40.68896622983536" lon="9.432095230770692"><ele>479.0</ele><time>2026-04-30T15:13:52.006Z</time></trkpt><trkpt lat="40.68908092111199" lon="9.431982055931574"><ele>479.0</ele><time>2026-04-30T15:13:53.006Z</time></trkpt><trkpt lat="40.68918453783055" lon="9.431863088028951"><ele>479.0</ele><time>2026-04-30T15:13:54.006Z</time></trkpt><trkpt lat="40.689270566004446" lon="9.431723805681312"><ele>479.0</ele><time>2026-04-30T15:13:55.006Z</time></trkpt><trkpt lat="40.68933316079285" lon="9.431564927599613"><ele>479.0</ele><time>2026-04-30T15:13:56.006Z</time></trkpt><trkpt lat="40.68937239874473" lon="9.43140255357224"><ele>479.0</ele><time>2026-04-30T15:13:57.006Z</time></trkpt><trkpt lat="40.6893840021092" lon="9.431230282821813"><ele>479.0</ele><time>2026-04-30T15:13:58.006Z</time></trkpt><trkpt lat="40.689362798006066" lon="9.431064553491128"><ele>479.0</ele><time>2026-04-30T15:13:59.006Z</time></trkpt><trkpt lat="40.68934594222991" lon="9.430881034155528"><ele>477.0</ele><time>2026-04-30T15:14:00.006Z</time></trkpt><trkpt lat="40.68934807200769" lon="9.430689381277203"><ele>475.0</ele><time>2026-04-30T15:14:01.006Z</time></trkpt><trkpt lat="40.68934939097008" lon="9.430480433505934"><ele>473.0</ele><time>2026-04-30T15:14:02.006Z</time></trkpt><trkpt lat="40.689367928747636" lon="9.43025557213332"><ele>472.0</ele><time>2026-04-30T15:14:03.006Z</time></trkpt><trkpt lat="40.68939177710075" lon="9.430024901335663"><ele>471.0</ele><time>2026-04-30T15:14:04.006Z</time></trkpt><trkpt lat="40.68941898864891" lon="9.429790601528808"><ele>470.0</ele><time>2026-04-30T15:14:05.006Z</time></trkpt><trkpt lat="40.68944897740461" lon="9.429549707837086"><ele>478.3333333333333</ele><time>2026-04-30T15:14:06.006Z</time></trkpt><trkpt lat="40.68948339799312" lon="9.429299953462383"><ele>486.66666666666663</ele><time>2026-04-30T15:14:07.006Z</time></trkpt><trkpt lat="40.689525847684635" lon="9.429044227455615"><ele>495.0</ele><time>2026-04-30T15:14:08.007Z</time></trkpt><trkpt lat="40.689576006510606" lon="9.428786496255197"><ele>495.0</ele><time>2026-04-30T15:14:09.007Z</time></trkpt><trkpt lat="40.689628986799455" lon="9.428519079773936"><ele>495.0</ele><time>2026-04-30T15:14:10.007Z</time></trkpt><trkpt lat="40.689681132184376" lon="9.42825444222814"><ele>495.0</ele><time>2026-04-30T15:14:11.007Z</time></trkpt><trkpt lat="40.68973209086177" lon="9.427991390335343"><ele>493.33333333333337</ele><time>2026-04-30T15:14:12.007Z</time></trkpt><trkpt lat="40.6897832418531" lon="9.427727345997765"><ele>491.6666666666667</ele><time>2026-04-30T15:14:13.007Z</time></trkpt><trkpt lat="40.68983391814867" lon="9.427465751771084"><ele>490.0</ele><time>2026-04-30T15:14:14.007Z</time></trkpt><trkpt lat="40.68988396418118" lon="9.427209740121633"><ele>488.33333333333337</ele><time>2026-04-30T15:14:15.007Z</time></trkpt><trkpt lat="40.689913273432595" lon="9.426954508246485"><ele>486.66666666666663</ele><time>2026-04-30T15:14:16.007Z</time></trkpt><trkpt lat="40.68995417503953" lon="9.426722391529053"><ele>485.0</ele><time>2026-04-30T15:14:17.007Z</time></trkpt><trkpt lat="40.689987482434084" lon="9.426497002044954"><ele>484.5</ele><time>2026-04-30T15:14:18.007Z</time></trkpt><trkpt lat="40.69001141561343" lon="9.426299641760279"><ele>484.0</ele><time>2026-04-30T15:14:19.007Z</time></trkpt><trkpt lat="40.69001428395073" lon="9.426115145390154"><ele>483.5</ele><time>2026-04-30T15:14:20.007Z</time></trkpt><trkpt lat="40.6899958888441" lon="9.42593454531953"><ele>483.0</ele><time>2026-04-30T15:14:21.007Z</time></trkpt><trkpt lat="40.68995968329787" lon="9.42574664530444"><ele>483.0</ele><time>2026-04-30T15:14:22.007Z</time></trkpt><trkpt lat="40.68990761122567" lon="9.425550167235263"><ele>483.0</ele><time>2026-04-30T15:14:23.007Z</time></trkpt><trkpt lat="40.68984190487202" lon="9.425345808200168"><ele>483.0</ele><time>2026-04-30T15:14:24.007Z</time></trkpt><trkpt lat="40.68977492905279" lon="9.42513475586343"><ele>485.0</ele><time>2026-04-30T15:14:25.007Z</time></trkpt><trkpt lat="40.68970793338574" lon="9.424917805921924"><ele>487.0</ele><time>2026-04-30T15:14:26.007Z</time></trkpt><trkpt lat="40.689637096842866" lon="9.42469888450677"><ele>489.0</ele><time>2026-04-30T15:14:27.007Z</time></trkpt><trkpt lat="40.689571575060405" lon="9.424468740819092"><ele>491.0</ele><time>2026-04-30T15:14:28.007Z</time></trkpt><trkpt lat="40.68950847918692" lon="9.424238083024964"><ele>493.0</ele><time>2026-04-30T15:14:29.007Z</time></trkpt><trkpt lat="40.68944331348379" lon="9.424011757726001"><ele>495.0</ele><time>2026-04-30T15:14:30.007Z</time></trkpt><trkpt lat="40.6893767835724" lon="9.423784452855656"><ele>495.66666666666663</ele><time>2026-04-30T15:14:31.007Z</time></trkpt><trkpt lat="40.68931016427459" lon="9.42355652305624"><ele>496.3333333333333</ele><time>2026-04-30T15:14:32.007Z</time></trkpt><trkpt lat="40.6892491566294" lon="9.423332264456509"><ele>497.0</ele><time>2026-04-30T15:14:33.007Z</time></trkpt><trkpt lat="40.6891948228689" lon="9.423107010621662"><ele>499.66666666666663</ele><time>2026-04-30T15:14:34.007Z</time></trkpt><trkpt lat="40.68914943825894" lon="9.422881627816956"><ele>502.33333333333337</ele><time>2026-04-30T15:14:35.007Z</time></trkpt><trkpt lat="40.68911294348184" lon="9.422669586405025"><ele>505.0</ele><time>2026-04-30T15:14:36.007Z</time></trkpt><trkpt lat="40.68908316457257" lon="9.422460301175397"><ele>505.0</ele><time>2026-04-30T15:14:37.007Z</time></trkpt><trkpt lat="40.68905039146462" lon="9.42225227264798"><ele>505.0</ele><time>2026-04-30T15:14:38.007Z</time></trkpt><trkpt lat="40.68901067271541" lon="9.422050307253228"><ele>505.0</ele><time>2026-04-30T15:14:39.007Z</time></trkpt><trkpt lat="40.688964168582004" lon="9.421845958400501"><ele>507.33333333333337</ele><time>2026-04-30T15:14:40.007Z</time></trkpt><trkpt lat="40.68891527986541" lon="9.421637654282618"><ele>509.66666666666663</ele><time>2026-04-30T15:14:41.007Z</time></trkpt><trkpt lat="40.68886146201761" lon="9.421435803588276"><ele>512.0</ele><time>2026-04-30T15:14:42.007Z</time></trkpt><trkpt lat="40.688800047406815" lon="9.421223820315632"><ele>516.6666666666666</ele><time>2026-04-30T15:14:43.007Z</time></trkpt><trkpt lat="40.68873941168336" lon="9.421005550200578"><ele>521.3333333333334</ele><time>2026-04-30T15:14:44.007Z</time></trkpt><trkpt lat="40.688676593478256" lon="9.420781366963395"><ele>526.0</ele><time>2026-04-30T15:14:45.007Z</time></trkpt><trkpt lat="40.688607920369435" lon="9.420551474279538"><ele>521.0</ele><time>2026-04-30T15:14:46.007Z</time></trkpt><trkpt lat="40.68854094882566" lon="9.420320449032008"><ele>516.0</ele><time>2026-04-30T15:14:47.007Z</time></trkpt><trkpt lat="40.68847134157398" lon="9.420081646558467"><ele>511.0</ele><time>2026-04-30T15:14:48.007Z</time></trkpt><trkpt lat="40.68839664616224" lon="9.41984276090165"><ele>514.6666666666667</ele><time>2026-04-30T15:14:49.007Z</time></trkpt><trkpt lat="40.6883234767053" lon="9.419597400989836"><ele>518.3333333333334</ele><time>2026-04-30T15:14:50.007Z</time></trkpt><trkpt lat="40.68825354778453" lon="9.419348796871093"><ele>522.0</ele><time>2026-04-30T15:14:51.007Z</time></trkpt><trkpt lat="40.68817798784087" lon="9.41909787714985"><ele>522.0</ele><time>2026-04-30T15:14:52.007Z</time></trkpt><trkpt lat="40.68810495867083" lon="9.418852410571155"><ele>522.0</ele><time>2026-04-30T15:14:53.007Z</time></trkpt><trkpt lat="40.68803494613269" lon="9.418616750044963"><ele>522.0</ele><time>2026-04-30T15:14:54.007Z</time></trkpt><trkpt lat="40.6879638225922" lon="9.418389855227192"><ele>524.25</ele><time>2026-04-30T15:14:55.007Z</time></trkpt><trkpt lat="40.68790053251779" lon="9.418196537616886"><ele>526.5</ele><time>2026-04-30T15:14:56.007Z</time></trkpt><trkpt lat="40.68783375160463" lon="9.41802874802486"><ele>528.75</ele><time>2026-04-30T15:14:57.007Z</time></trkpt><trkpt lat="40.68775821508887" lon="9.41788112224498"><ele>531.0</ele><time>2026-04-30T15:14:58.007Z</time></trkpt><trkpt lat="40.68767386393143" lon="9.417769521659107"><ele>531.0</ele><time>2026-04-30T15:14:59.007Z</time></trkpt><trkpt lat="40.687574618115896" lon="9.417681929691067"><ele>531.0</ele><time>2026-04-30T15:15:00.007Z</time></trkpt><trkpt lat="40.68746201533821" lon="9.417612879638648"><ele>531.0</ele><time>2026-04-30T15:15:01.007Z</time></trkpt><trkpt lat="40.68733505293408" lon="9.41755986429853"><ele>531.0</ele><time>2026-04-30T15:15:02.007Z</time></trkpt><trkpt lat="40.687192901658584" lon="9.417513789659196"><ele>531.0</ele><time>2026-04-30T15:15:03.007Z</time></trkpt><trkpt lat="40.68704651118396" lon="9.417484859367324"><ele>531.0</ele><time>2026-04-30T15:15:04.007Z</time></trkpt><trkpt lat="40.68689845676039" lon="9.417468454828168"><ele>531.0</ele><time>2026-04-30T15:15:05.007Z</time></trkpt><trkpt lat="40.68676667010468" lon="9.4174744898317"><ele>531.0</ele><time>2026-04-30T15:15:06.007Z</time></trkpt><trkpt lat="40.68664115342556" lon="9.417458227294643"><ele>531.3333333333334</ele><time>2026-04-30T15:15:07.007Z</time></trkpt><trkpt lat="40.686529894414996" lon="9.4174607256184"><ele>531.6666666666667</ele><time>2026-04-30T15:15:08.007Z</time></trkpt><trkpt lat="40.68642782101792" lon="9.417464177166277"><ele>532.0</ele><time>2026-04-30T15:15:09.007Z</time></trkpt><trkpt lat="40.68606506862955" lon="9.41744446522404"><ele>533.0</ele><time>2026-04-30T15:15:10.007Z</time></trkpt><trkpt lat="40.685912025077776" lon="9.41744394516376"><ele>534.0</ele><time>2026-04-30T15:15:11.007Z</time></trkpt><trkpt lat="40.68576410176733" lon="9.417407818724657"><ele>535.0</ele><time>2026-04-30T15:15:12.007Z</time></trkpt><trkpt lat="40.685615836775995" lon="9.417370238294975"><ele>535.0</ele><time>2026-04-30T15:15:13.007Z</time></trkpt><trkpt lat="40.68548344343383" lon="9.417280032820116"><ele>535.0</ele><time>2026-04-30T15:15:14.007Z</time></trkpt><trkpt lat="40.685352770314466" lon="9.417195824379947"><ele>535.0</ele><time>2026-04-30T15:15:15.007Z</time></trkpt><trkpt lat="40.685231012735606" lon="9.417099199899896"><ele>535.0</ele><time>2026-04-30T15:15:16.007Z</time></trkpt><trkpt lat="40.685125075250724" lon="9.416997696341243"><ele>536.2</ele><time>2026-04-30T15:15:17.007Z</time></trkpt><trkpt lat="40.685044238755694" lon="9.416904853512767"><ele>537.4</ele><time>2026-04-30T15:15:18.007Z</time></trkpt><trkpt lat="40.68498628499692" lon="9.416801677888722"><ele>538.6</ele><time>2026-04-30T15:15:19.007Z</time></trkpt><trkpt lat="40.684954693900835" lon="9.41667528126533"><ele>539.8</ele><time>2026-04-30T15:15:20.007Z</time></trkpt><trkpt lat="40.68493498132534" lon="9.416543454902365"><ele>541.0</ele><time>2026-04-30T15:15:21.007Z</time></trkpt><trkpt lat="40.68494881066746" lon="9.416411297744887"><ele>541.0</ele><time>2026-04-30T15:15:22.007Z</time></trkpt><trkpt lat="40.684974666443075" lon="9.41626409275769"><ele>541.0</ele><time>2026-04-30T15:15:23.007Z</time></trkpt><trkpt lat="40.68501289355342" lon="9.416110961045876"><ele>541.0</ele><time>2026-04-30T15:15:24.007Z</time></trkpt><trkpt lat="40.685058375502614" lon="9.415950054356609"><ele>541.0</ele><time>2026-04-30T15:15:25.007Z</time></trkpt><trkpt lat="40.68511410608224" lon="9.415798750792515"><ele>541.0</ele><time>2026-04-30T15:15:26.007Z</time></trkpt><trkpt lat="40.68517798987212" lon="9.415662357993488"><ele>541.0</ele><time>2026-04-30T15:15:27.007Z</time></trkpt><trkpt lat="40.68524812197182" lon="9.415531668602455"><ele>541.0</ele><time>2026-04-30T15:15:28.007Z</time></trkpt><trkpt lat="40.68532425066244" lon="9.415402411600072"><ele>541.0</ele><time>2026-04-30T15:15:29.007Z</time></trkpt><trkpt lat="40.685399955993866" lon="9.415274121538591"><ele>545.25</ele><time>2026-04-30T15:15:30.007Z</time></trkpt><trkpt lat="40.68547333200676" lon="9.41514767107275"><ele>549.5</ele><time>2026-04-30T15:15:31.007Z</time></trkpt><trkpt lat="40.685546596760034" lon="9.415021412339577"><ele>553.75</ele><time>2026-04-30T15:15:32.007Z</time></trkpt><trkpt lat="40.68561704401881" lon="9.414900009035772"><ele>558.0</ele><time>2026-04-30T15:15:33.007Z</time></trkpt><trkpt lat="40.685680917596635" lon="9.41477530802881"><ele>557.5</ele><time>2026-04-30T15:15:34.007Z</time></trkpt><trkpt lat="40.68574916564988" lon="9.414645979895287"><ele>557.0</ele><time>2026-04-30T15:15:35.007Z</time></trkpt><trkpt lat="40.68582610217507" lon="9.414510809688961"><ele>556.5</ele><time>2026-04-30T15:15:36.007Z</time></trkpt><trkpt lat="40.68590532088036" lon="9.414386994881564"><ele>556.0</ele><time>2026-04-30T15:15:37.007Z</time></trkpt><trkpt lat="40.6859822869056" lon="9.414251120817303"><ele>556.0</ele><time>2026-04-30T15:15:38.007Z</time></trkpt><trkpt lat="40.68606038343745" lon="9.414099602162421"><ele>556.0</ele><time>2026-04-30T15:15:39.007Z</time></trkpt><trkpt lat="40.686156793106264" lon="9.41393318967571"><ele>556.0</ele><time>2026-04-30T15:15:40.007Z</time></trkpt><trkpt lat="40.68626267314907" lon="9.413766185129605"><ele>562.3333333333334</ele><time>2026-04-30T15:15:41.007Z</time></trkpt><trkpt lat="40.68636205746346" lon="9.413590584974912"><ele>568.6666666666666</ele><time>2026-04-30T15:15:42.007Z</time></trkpt><trkpt lat="40.68647128717069" lon="9.413410551963073"><ele>575.0</ele><time>2026-04-30T15:15:43.007Z</time></trkpt><trkpt lat="40.68657584513289" lon="9.41322940699268"><ele>575.0</ele><time>2026-04-30T15:15:44.007Z</time></trkpt><trkpt lat="40.686690377292365" lon="9.413040127487312"><ele>575.0</ele><time>2026-04-30T15:15:45.007Z</time></trkpt><trkpt lat="40.68679864835019" lon="9.41284041866496"><ele>575.0</ele><time>2026-04-30T15:15:46.007Z</time></trkpt><trkpt lat="40.68690987532911" lon="9.412646601156531"><ele>578.3333333333333</ele><time>2026-04-30T15:15:47.007Z</time></trkpt><trkpt lat="40.687024731758676" lon="9.412456680898433"><ele>581.6666666666666</ele><time>2026-04-30T15:15:48.007Z</time></trkpt><trkpt lat="40.68713650738706" lon="9.412264246064366"><ele>585.0</ele><time>2026-04-30T15:15:49.007Z</time></trkpt><trkpt lat="40.68724684290849" lon="9.41208079469732"><ele>585.0</ele><time>2026-04-30T15:15:50.007Z</time></trkpt><trkpt lat="40.687354951239314" lon="9.411893552544694"><ele>585.0</ele><time>2026-04-30T15:15:51.007Z</time></trkpt><trkpt lat="40.68746211088133" lon="9.411711859867104"><ele>585.0</ele><time>2026-04-30T15:15:52.007Z</time></trkpt><trkpt lat="40.6875675789887" lon="9.411515514584798"><ele>585.0</ele><time>2026-04-30T15:15:53.007Z</time></trkpt><trkpt lat="40.68767261836795" lon="9.411327030798972"><ele>585.0</ele><time>2026-04-30T15:15:53.995Z</time></trkpt><trkpt lat="40.687773524910234" lon="9.41114686429046"><ele>585.0</ele><time>2026-04-30T15:15:54.995Z</time></trkpt><trkpt lat="40.68785813029386" lon="9.41098992676847"><ele>589.0</ele><time>2026-04-30T15:15:55.995Z</time></trkpt><trkpt lat="40.68792240080607" lon="9.41083754002626"><ele>593.0</ele><time>2026-04-30T15:15:56.995Z</time></trkpt><trkpt lat="40.6879615653471" lon="9.41066832701301"><ele>597.0</ele><time>2026-04-30T15:15:57.995Z</time></trkpt><trkpt lat="40.68798757571479" lon="9.410483013818963"><ele>601.0</ele><time>2026-04-30T15:15:58.995Z</time></trkpt><trkpt lat="40.68799664447334" lon="9.41028447711864"><ele>602.0</ele><time>2026-04-30T15:15:59.995Z</time></trkpt><trkpt lat="40.687992529423305" lon="9.41008375247052"><ele>603.0</ele><time>2026-04-30T15:16:00.995Z</time></trkpt><trkpt lat="40.687978456991644" lon="9.409884951922194"><ele>604.0</ele><time>2026-04-30T15:16:01.995Z</time></trkpt><trkpt lat="40.68793761202569" lon="9.409672705335414"><ele>605.0</ele><time>2026-04-30T15:16:02.995Z</time></trkpt><trkpt lat="40.6879158207884" lon="9.409466045530689"><ele>606.0</ele><time>2026-04-30T15:16:03.995Z</time></trkpt><trkpt lat="40.687877021341585" lon="9.409260071484649"><ele>607.0</ele><time>2026-04-30T15:16:04.995Z</time></trkpt><trkpt lat="40.6878557985202" lon="9.40904375294161"><ele>606.6666666666667</ele><time>2026-04-30T15:16:05.995Z</time></trkpt><trkpt lat="40.68784604319207" lon="9.408825610005444"><ele>606.3333333333334</ele><time>2026-04-30T15:16:06.995Z</time></trkpt><trkpt lat="40.68784350138122" lon="9.408588936702415"><ele>606.0</ele><time>2026-04-30T15:16:07.995Z</time></trkpt><trkpt lat="40.68784440643996" lon="9.408341063993625"><ele>606.0</ele><time>2026-04-30T15:16:08.995Z</time></trkpt><trkpt lat="40.68784620349221" lon="9.408083442157162"><ele>606.0</ele><time>2026-04-30T15:16:09.995Z</time></trkpt><trkpt lat="40.68785266458821" lon="9.407825264605115"><ele>606.0</ele><time>2026-04-30T15:16:10.995Z</time></trkpt><trkpt lat="40.68785383795821" lon="9.407563669081622"><ele>606.3333333333334</ele><time>2026-04-30T15:16:11.995Z</time></trkpt><trkpt lat="40.68785709432595" lon="9.407301000767964"><ele>606.6666666666667</ele><time>2026-04-30T15:16:12.995Z</time></trkpt><trkpt lat="40.68786165500958" lon="9.407040833670461"><ele>607.0</ele><time>2026-04-30T15:16:13.995Z</time></trkpt><trkpt lat="40.68786542850037" lon="9.406809073510418"><ele>608.0</ele><time>2026-04-30T15:16:14.995Z</time></trkpt><trkpt lat="40.68786129811626" lon="9.406595269523729"><ele>609.0</ele><time>2026-04-30T15:16:15.995Z</time></trkpt><trkpt lat="40.68785215551175" lon="9.406380071718527"><ele>610.0</ele><time>2026-04-30T15:16:16.995Z</time></trkpt><trkpt lat="40.687826918721" lon="9.406181597979302"><ele>610.0</ele><time>2026-04-30T15:16:17.995Z</time></trkpt><trkpt lat="40.68777944364479" lon="9.406001938784689"><ele>610.0</ele><time>2026-04-30T15:16:18.995Z</time></trkpt><trkpt lat="40.687712474513035" lon="9.40584013606467"><ele>610.0</ele><time>2026-04-30T15:16:19.995Z</time></trkpt><trkpt lat="40.687626704527254" lon="9.405686921801152"><ele>610.0</ele><time>2026-04-30T15:16:20.995Z</time></trkpt><trkpt lat="40.68752103590454" lon="9.405559320324594"><ele>612.0</ele><time>2026-04-30T15:16:21.995Z</time></trkpt><trkpt lat="40.68739896802518" lon="9.405450781597157"><ele>614.0</ele><time>2026-04-30T15:16:22.995Z</time></trkpt><trkpt lat="40.68726634916077" lon="9.405357009372398"><ele>616.0</ele><time>2026-04-30T15:16:23.995Z</time></trkpt><trkpt lat="40.68711759714609" lon="9.405279078641868"><ele>616.0</ele><time>2026-04-30T15:16:24.995Z</time></trkpt><trkpt lat="40.68695836922317" lon="9.405209551663763"><ele>616.0</ele><time>2026-04-30T15:16:25.995Z</time></trkpt><trkpt lat="40.6867970583728" lon="9.405128947482659"><ele>616.0</ele><time>2026-04-30T15:16:26.995Z</time></trkpt><trkpt lat="40.686642341746584" lon="9.405042532455697"><ele>615.3333333333334</ele><time>2026-04-30T15:16:27.995Z</time></trkpt><trkpt lat="40.68650178753964" lon="9.404943023509333"><ele>614.6666666666666</ele><time>2026-04-30T15:16:28.995Z</time></trkpt><trkpt lat="40.68637304800967" lon="9.404830849898369"><ele>614.0</ele><time>2026-04-30T15:16:29.995Z</time></trkpt><trkpt lat="40.686254752645354" lon="9.404698327634915"><ele>614.6666666666666</ele><time>2026-04-30T15:16:30.995Z</time></trkpt><trkpt lat="40.68615063166496" lon="9.40455808295611"><ele>615.3333333333334</ele><time>2026-04-30T15:16:31.995Z</time></trkpt><trkpt lat="40.68605570398548" lon="9.404402643411112"><ele>616.0</ele><time>2026-04-30T15:16:32.995Z</time></trkpt><trkpt lat="40.685970913510815" lon="9.40423149624167"><ele>614.6666666666667</ele><time>2026-04-30T15:16:33.995Z</time></trkpt><trkpt lat="40.68591094469972" lon="9.404045659807673"><ele>613.3333333333334</ele><time>2026-04-30T15:16:34.995Z</time></trkpt><trkpt lat="40.68585260928811" lon="9.403839562456314"><ele>612.0</ele><time>2026-04-30T15:16:35.995Z</time></trkpt><trkpt lat="40.6858053808786" lon="9.403620130800128"><ele>610.6666666666666</ele><time>2026-04-30T15:16:36.995Z</time></trkpt><trkpt lat="40.68576463501768" lon="9.403391767719578"><ele>609.3333333333333</ele><time>2026-04-30T15:16:37.995Z</time></trkpt><trkpt lat="40.685722087389784" lon="9.403158653222327"><ele>608.0</ele><time>2026-04-30T15:16:38.995Z</time></trkpt><trkpt lat="40.685675695623935" lon="9.402932543078618"><ele>605.6666666666666</ele><time>2026-04-30T15:16:39.995Z</time></trkpt><trkpt lat="40.68562802410868" lon="9.402724200026372"><ele>603.3333333333334</ele><time>2026-04-30T15:16:40.995Z</time></trkpt><trkpt lat="40.685576298619004" lon="9.402521971024402"><ele>601.0</ele><time>2026-04-30T15:16:41.994Z</time></trkpt><trkpt lat="40.68551302675921" lon="9.402331735084058"><ele>600.6666666666667</ele><time>2026-04-30T15:16:42.994Z</time></trkpt><trkpt lat="40.685432374219" lon="9.402140698787724"><ele>600.3333333333334</ele><time>2026-04-30T15:16:43.995Z</time></trkpt><trkpt lat="40.68533685060455" lon="9.401947358488354"><ele>600.0</ele><time>2026-04-30T15:16:44.994Z</time></trkpt><trkpt lat="40.685229318174976" lon="9.401764692083514"><ele>598.6666666666666</ele><time>2026-04-30T15:16:45.994Z</time></trkpt><trkpt lat="40.685115751842396" lon="9.401600917014195"><ele>597.3333333333333</ele><time>2026-04-30T15:16:46.994Z</time></trkpt><trkpt lat="40.68498896804111" lon="9.401441953486872"><ele>596.0</ele><time>2026-04-30T15:16:47.994Z</time></trkpt><trkpt lat="40.68484772162495" lon="9.401298504971093"><ele>596.0</ele><time>2026-04-30T15:16:48.994Z</time></trkpt><trkpt lat="40.684697974964244" lon="9.401157611155108"><ele>596.0</ele><time>2026-04-30T15:16:49.994Z</time></trkpt><trkpt lat="40.68453249072419" lon="9.4010279524227"><ele>596.0</ele><time>2026-04-30T15:16:50.995Z</time></trkpt><trkpt lat="40.68436202627954" lon="9.400904034749267"><ele>594.0</ele><time>2026-04-30T15:16:51.995Z</time></trkpt><trkpt lat="40.68418749798823" lon="9.40078119896259"><ele>592.0</ele><time>2026-04-30T15:16:52.994Z</time></trkpt><trkpt lat="40.6840174368188" lon="9.400656768191894"><ele>590.0</ele><time>2026-04-30T15:16:53.994Z</time></trkpt><trkpt lat="40.68384544102905" lon="9.400531956543386"><ele>590.3333333333333</ele><time>2026-04-30T15:16:54.994Z</time></trkpt><trkpt lat="40.683679233571524" lon="9.400408094445282"><ele>590.6666666666666</ele><time>2026-04-30T15:16:55.994Z</time></trkpt><trkpt lat="40.683518051714124" lon="9.40028161557251"><ele>591.0</ele><time>2026-04-30T15:16:56.994Z</time></trkpt><trkpt lat="40.6833632550203" lon="9.400151700739809"><ele>588.0</ele><time>2026-04-30T15:16:57.994Z</time></trkpt><trkpt lat="40.683212940301026" lon="9.40001741646705"><ele>585.0</ele><time>2026-04-30T15:16:58.994Z</time></trkpt><trkpt lat="40.68306465463397" lon="9.39987012034022"><ele>582.0</ele><time>2026-04-30T15:16:59.994Z</time></trkpt><trkpt lat="40.682923533191314" lon="9.399715565896255"><ele>583.3333333333334</ele><time>2026-04-30T15:17:00.994Z</time></trkpt><trkpt lat="40.68279142225789" lon="9.399553927840458"><ele>584.6666666666667</ele><time>2026-04-30T15:17:01.994Z</time></trkpt><trkpt lat="40.682662221549144" lon="9.399379348516806"><ele>586.0</ele><time>2026-04-30T15:17:02.994Z</time></trkpt><trkpt lat="40.68253439814036" lon="9.399196089245551"><ele>583.6666666666667</ele><time>2026-04-30T15:17:03.994Z</time></trkpt><trkpt lat="40.682422654922824" lon="9.399011063368176"><ele>581.3333333333334</ele><time>2026-04-30T15:17:04.994Z</time></trkpt><trkpt lat="40.68231399927115" lon="9.39881708970396"><ele>579.0</ele><time>2026-04-30T15:17:05.994Z</time></trkpt><trkpt lat="40.68221720448322" lon="9.39860643073738"><ele>579.0</ele><time>2026-04-30T15:17:06.994Z</time></trkpt><trkpt lat="40.68211711404427" lon="9.398387049357042"><ele>579.0</ele><time>2026-04-30T15:17:07.994Z</time></trkpt><trkpt lat="40.68202787878594" lon="9.398155752516718"><ele>579.0</ele><time>2026-04-30T15:17:08.994Z</time></trkpt><trkpt lat="40.68195345782636" lon="9.39791013872771"><ele>574.3333333333334</ele><time>2026-04-30T15:17:09.994Z</time></trkpt><trkpt lat="40.68188565528325" lon="9.397663171049489"><ele>569.6666666666667</ele><time>2026-04-30T15:17:10.994Z</time></trkpt><trkpt lat="40.68182017190028" lon="9.397410234964578"><ele>565.0</ele><time>2026-04-30T15:17:11.994Z</time></trkpt><trkpt lat="40.68175055992386" lon="9.397157140677255"><ele>565.0</ele><time>2026-04-30T15:17:12.994Z</time></trkpt><trkpt lat="40.68167438284413" lon="9.396902312804677"><ele>565.0</ele><time>2026-04-30T15:17:13.994Z</time></trkpt><trkpt lat="40.68160090641785" lon="9.396647032734872"><ele>565.0</ele><time>2026-04-30T15:17:14.994Z</time></trkpt><trkpt lat="40.681528430564384" lon="9.396391567701457"><ele>567.0</ele><time>2026-04-30T15:17:15.994Z</time></trkpt><trkpt lat="40.68145715215899" lon="9.396133647997996"><ele>569.0</ele><time>2026-04-30T15:17:16.994Z</time></trkpt><trkpt lat="40.681387141861165" lon="9.395877704064178"><ele>571.0</ele><time>2026-04-30T15:17:17.994Z</time></trkpt><trkpt lat="40.68132543232459" lon="9.395618081297306"><ele>572.0</ele><time>2026-04-30T15:17:18.994Z</time></trkpt><trkpt lat="40.68128132851519" lon="9.395353776145845"><ele>573.0</ele><time>2026-04-30T15:17:19.994Z</time></trkpt><trkpt lat="40.68124405655658" lon="9.395084294032541"><ele>574.0</ele><time>2026-04-30T15:17:20.994Z</time></trkpt><trkpt lat="40.68121333002505" lon="9.394802688688765"><ele>575.0</ele><time>2026-04-30T15:17:21.994Z</time></trkpt><trkpt lat="40.68118964264193" lon="9.39451874280803"><ele>576.0</ele><time>2026-04-30T15:17:22.994Z</time></trkpt><trkpt lat="40.681177799351865" lon="9.394238330024105"><ele>577.0</ele><time>2026-04-30T15:17:23.994Z</time></trkpt><trkpt lat="40.681177258966756" lon="9.393954633281716"><ele>577.0</ele><time>2026-04-30T15:17:24.994Z</time></trkpt><trkpt lat="40.681183174036256" lon="9.393660812634629"><ele>577.0</ele><time>2026-04-30T15:17:25.994Z</time></trkpt><trkpt lat="40.68119630937891" lon="9.393375393604638"><ele>577.0</ele><time>2026-04-30T15:17:26.994Z</time></trkpt><trkpt lat="40.68121645707356" lon="9.393084461853183"><ele>576.0</ele><time>2026-04-30T15:17:27.994Z</time></trkpt><trkpt lat="40.681249944483454" lon="9.392790778164997"><ele>575.0</ele><time>2026-04-30T15:17:28.994Z</time></trkpt><trkpt lat="40.68128792976981" lon="9.392496350032506"><ele>575.0</ele><time>2026-04-30T15:17:29.994Z</time></trkpt><trkpt lat="40.68133044603023" lon="9.392199954527578"><ele>575.0</ele><time>2026-04-30T15:17:30.994Z</time></trkpt><trkpt lat="40.68137267176184" lon="9.391897515899153"><ele>577.5</ele><time>2026-04-30T15:17:31.994Z</time></trkpt><trkpt lat="40.68141394782048" lon="9.391591395636254"><ele>580.0</ele><time>2026-04-30T15:17:32.994Z</time></trkpt><trkpt lat="40.6814565331888" lon="9.391284294074609"><ele>581.0</ele><time>2026-04-30T15:17:33.994Z</time></trkpt><trkpt lat="40.68150249031092" lon="9.390975540400262"><ele>582.0</ele><time>2026-04-30T15:17:34.994Z</time></trkpt><trkpt lat="40.68155776189975" lon="9.390671521672212"><ele>581.0</ele><time>2026-04-30T15:17:35.994Z</time></trkpt><trkpt lat="40.68161940318372" lon="9.390366463870308"><ele>580.0</ele><time>2026-04-30T15:17:36.994Z</time></trkpt><trkpt lat="40.68168007647721" lon="9.390067331965069"><ele>580.0</ele><time>2026-04-30T15:17:37.994Z</time></trkpt><trkpt lat="40.68173479995365" lon="9.389772512373726"><ele>580.0</ele><time>2026-04-30T15:17:38.994Z</time></trkpt><trkpt lat="40.68178649557497" lon="9.389498184914743"><ele>580.0</ele><time>2026-04-30T15:17:39.994Z</time></trkpt><trkpt lat="40.681835423177525" lon="9.389237032086756"><ele>580.6666666666667</ele><time>2026-04-30T15:17:40.994Z</time></trkpt><trkpt lat="40.68186792314071" lon="9.388988843024274"><ele>581.3333333333334</ele><time>2026-04-30T15:17:41.994Z</time></trkpt><trkpt lat="40.68188657682438" lon="9.388740939373657"><ele>582.0</ele><time>2026-04-30T15:17:42.994Z</time></trkpt><trkpt lat="40.68188262696054" lon="9.388499036457"><ele>582.3333333333334</ele><time>2026-04-30T15:17:43.994Z</time></trkpt><trkpt lat="40.681869201300515" lon="9.388261895322438"><ele>582.6666666666667</ele><time>2026-04-30T15:17:44.994Z</time></trkpt><trkpt lat="40.681841457425705" lon="9.38801309365178"><ele>583.0</ele><time>2026-04-30T15:17:45.994Z</time></trkpt><trkpt lat="40.68179674456563" lon="9.387769033840168"><ele>582.6666666666667</ele><time>2026-04-30T15:17:46.994Z</time></trkpt><trkpt lat="40.68173742724743" lon="9.387531150890062"><ele>582.3333333333334</ele><time>2026-04-30T15:17:47.994Z</time></trkpt><trkpt lat="40.68166202427006" lon="9.38729664490663"><ele>582.0</ele><time>2026-04-30T15:17:48.994Z</time></trkpt><trkpt lat="40.68157504016356" lon="9.387061901462008"><ele>582.0</ele><time>2026-04-30T15:17:49.994Z</time></trkpt><trkpt lat="40.6814764404499" lon="9.386819281076361"><ele>582.0</ele><time>2026-04-30T15:17:50.994Z</time></trkpt><trkpt lat="40.68136516046004" lon="9.386569963022943"><ele>582.0</ele><time>2026-04-30T15:17:51.994Z</time></trkpt><trkpt lat="40.68125396537905" lon="9.386315669879858"><ele>583.0</ele><time>2026-04-30T15:17:52.994Z</time></trkpt><trkpt lat="40.681139842393996" lon="9.386046238775236"><ele>584.0</ele><time>2026-04-30T15:17:53.994Z</time></trkpt><trkpt lat="40.68102574206603" lon="9.385777116394694"><ele>582.0</ele><time>2026-04-30T15:17:54.994Z</time></trkpt><trkpt lat="40.68090955749129" lon="9.385504520652582"><ele>580.0</ele><time>2026-04-30T15:17:55.994Z</time></trkpt><trkpt lat="40.68079341142593" lon="9.38523092907751"><ele>580.0</ele><time>2026-04-30T15:17:56.994Z</time></trkpt><trkpt lat="40.68067642200259" lon="9.384958478223274"><ele>580.0</ele><time>2026-04-30T15:17:57.994Z</time></trkpt><trkpt lat="40.68055758525589" lon="9.384682317689261"><ele>580.0</ele><time>2026-04-30T15:17:58.994Z</time></trkpt><trkpt lat="40.68043984096181" lon="9.384407582647567"><ele>580.0</ele><time>2026-04-30T15:17:59.994Z</time></trkpt><trkpt lat="40.680325322527" lon="9.384139637870467"><ele>579.0</ele><time>2026-04-30T15:18:00.994Z</time></trkpt><trkpt lat="40.6802144533919" lon="9.383880118919233"><ele>578.0</ele><time>2026-04-30T15:18:01.994Z</time></trkpt><trkpt lat="40.680107673206074" lon="9.38363471994853"><ele>577.0</ele><time>2026-04-30T15:18:02.994Z</time></trkpt><trkpt lat="40.68000703475881" lon="9.383395397965021"><ele>575.6666666666667</ele><time>2026-04-30T15:18:03.994Z</time></trkpt><trkpt lat="40.679917751122034" lon="9.383176514049529"><ele>574.3333333333334</ele><time>2026-04-30T15:18:04.994Z</time></trkpt><trkpt lat="40.679837770104854" lon="9.382961078363643"><ele>573.0</ele><time>2026-04-30T15:18:05.994Z</time></trkpt><trkpt lat="40.67976639867862" lon="9.382732314961519"><ele>572.0</ele><time>2026-04-30T15:18:06.994Z</time></trkpt><trkpt lat="40.679712065672994" lon="9.38250186204196"><ele>571.0</ele><time>2026-04-30T15:18:07.994Z</time></trkpt><trkpt lat="40.67967824359238" lon="9.382265095194116"><ele>570.0</ele><time>2026-04-30T15:18:08.994Z</time></trkpt><trkpt lat="40.67964273651149" lon="9.381993929180583"><ele>568.6666666666666</ele><time>2026-04-30T15:18:09.994Z</time></trkpt><trkpt lat="40.6795996143225" lon="9.38171069068304"><ele>567.3333333333333</ele><time>2026-04-30T15:18:10.994Z</time></trkpt><trkpt lat="40.679565287802305" lon="9.381426007167208"><ele>566.0</ele><time>2026-04-30T15:18:11.994Z</time></trkpt><trkpt lat="40.6795467889776" lon="9.381136233941096"><ele>565.0</ele><time>2026-04-30T15:18:12.994Z</time></trkpt><trkpt lat="40.679513500317846" lon="9.380854495598685"><ele>564.0</ele><time>2026-04-30T15:18:13.994Z</time></trkpt><trkpt lat="40.679481904912244" lon="9.380587079103263"><ele>563.0</ele><time>2026-04-30T15:18:14.994Z</time></trkpt><trkpt lat="40.679449926526885" lon="9.380314322874247"><ele>563.6666666666666</ele><time>2026-04-30T15:18:15.994Z</time></trkpt><trkpt lat="40.67940280074051" lon="9.380046665425148"><ele>564.3333333333334</ele><time>2026-04-30T15:18:16.994Z</time></trkpt><trkpt lat="40.67939177514064" lon="9.37978929981711"><ele>565.0</ele><time>2026-04-30T15:18:17.994Z</time></trkpt><trkpt lat="40.67936811527818" lon="9.37951915598876"><ele>563.3333333333334</ele><time>2026-04-30T15:18:18.994Z</time></trkpt><trkpt lat="40.679358268916836" lon="9.379244220069365"><ele>561.6666666666666</ele><time>2026-04-30T15:18:19.994Z</time></trkpt><trkpt lat="40.67936158027127" lon="9.378958265654012"><ele>560.0</ele><time>2026-04-30T15:18:20.994Z</time></trkpt><trkpt lat="40.67936833045747" lon="9.378672552972084"><ele>560.0</ele><time>2026-04-30T15:18:21.994Z</time></trkpt><trkpt lat="40.67937848985924" lon="9.378385776417119"><ele>560.0</ele><time>2026-04-30T15:18:22.994Z</time></trkpt><trkpt lat="40.67938977883011" lon="9.378103545244109"><ele>560.0</ele><time>2026-04-30T15:18:23.994Z</time></trkpt><trkpt lat="40.67940262934662" lon="9.377835282430498"><ele>559.6666666666666</ele><time>2026-04-30T15:18:24.994Z</time></trkpt><trkpt lat="40.67941145186338" lon="9.377569797732628"><ele>559.3333333333334</ele><time>2026-04-30T15:18:25.994Z</time></trkpt><trkpt lat="40.67941811646631" lon="9.377315028808294"><ele>559.0</ele><time>2026-04-30T15:18:26.994Z</time></trkpt><trkpt lat="40.67942098163416" lon="9.37707403009909"><ele>555.6666666666667</ele><time>2026-04-30T15:18:27.994Z</time></trkpt><trkpt lat="40.67943835228835" lon="9.376851225024005"><ele>552.3333333333334</ele><time>2026-04-30T15:18:28.994Z</time></trkpt><trkpt lat="40.67946565727661" lon="9.376633326498593"><ele>549.0</ele><time>2026-04-30T15:18:29.994Z</time></trkpt><trkpt lat="40.67950511203994" lon="9.376412785402001"><ele>548.3333333333334</ele><time>2026-04-30T15:18:30.994Z</time></trkpt><trkpt lat="40.67956478780151" lon="9.376199488918306"><ele>547.6666666666667</ele><time>2026-04-30T15:18:31.994Z</time></trkpt><trkpt lat="40.67962730517647" lon="9.375998007923986"><ele>547.0</ele><time>2026-04-30T15:18:32.994Z</time></trkpt><trkpt lat="40.679674990691396" lon="9.375815105994334"><ele>547.0</ele><time>2026-04-30T15:18:33.994Z</time></trkpt><trkpt lat="40.679705884742894" lon="9.37561483830289"><ele>547.0</ele><time>2026-04-30T15:18:34.994Z</time></trkpt><trkpt lat="40.679713972839444" lon="9.375419397316895"><ele>547.0</ele><time>2026-04-30T15:18:35.994Z</time></trkpt><trkpt lat="40.67969485434588" lon="9.375220410277551"><ele>546.6666666666667</ele><time>2026-04-30T15:18:36.994Z</time></trkpt><trkpt lat="40.679655467768235" lon="9.37501689530748"><ele>546.3333333333334</ele><time>2026-04-30T15:18:37.994Z</time></trkpt><trkpt lat="40.67959904039321" lon="9.37480179571956"><ele>546.0</ele><time>2026-04-30T15:18:38.994Z</time></trkpt><trkpt lat="40.67953191056504" lon="9.374573876578852"><ele>546.0</ele><time>2026-04-30T15:18:39.994Z</time></trkpt><trkpt lat="40.67946287902186" lon="9.374329695100371"><ele>546.0</ele><time>2026-04-30T15:18:40.994Z</time></trkpt><trkpt lat="40.67939045787238" lon="9.374081083152632"><ele>546.0</ele><time>2026-04-30T15:18:41.994Z</time></trkpt><trkpt lat="40.67931985440574" lon="9.373829520975693"><ele>546.3333333333334</ele><time>2026-04-30T15:18:42.994Z</time></trkpt><trkpt lat="40.679253133577625" lon="9.373575479966567"><ele>546.6666666666667</ele><time>2026-04-30T15:18:43.994Z</time></trkpt><trkpt lat="40.679183067019885" lon="9.37332199054179"><ele>547.0</ele><time>2026-04-30T15:18:44.994Z</time></trkpt><trkpt lat="40.679115088445975" lon="9.373077294411742"><ele>548.6666666666667</ele><time>2026-04-30T15:18:45.994Z</time></trkpt><trkpt lat="40.6790497816748" lon="9.372840423246755"><ele>550.3333333333334</ele><time>2026-04-30T15:18:46.994Z</time></trkpt><trkpt lat="40.67898636847996" lon="9.372618327001907"><ele>552.0</ele><time>2026-04-30T15:18:47.994Z</time></trkpt><trkpt lat="40.67892922145843" lon="9.372410111697087"><ele>552.0</ele><time>2026-04-30T15:18:48.994Z</time></trkpt><trkpt lat="40.67888910269325" lon="9.37219728957264"><ele>552.0</ele><time>2026-04-30T15:18:49.994Z</time></trkpt><trkpt lat="40.67886538153954" lon="9.371981962029817"><ele>552.0</ele><time>2026-04-30T15:18:50.994Z</time></trkpt><trkpt lat="40.67888080175452" lon="9.37176302906857"><ele>552.3333333333334</ele><time>2026-04-30T15:18:51.994Z</time></trkpt><trkpt lat="40.67890415131263" lon="9.371556683418746"><ele>552.6666666666667</ele><time>2026-04-30T15:18:52.994Z</time></trkpt><trkpt lat="40.67894514241545" lon="9.371344186587862"><ele>553.0</ele><time>2026-04-30T15:18:53.994Z</time></trkpt><trkpt lat="40.678992972956486" lon="9.371113691479275"><ele>552.6666666666667</ele><time>2026-04-30T15:18:54.994Z</time></trkpt><trkpt lat="40.67904286419572" lon="9.37087330340968"><ele>552.3333333333334</ele><time>2026-04-30T15:18:55.994Z</time></trkpt><trkpt lat="40.679080478489745" lon="9.370618052318243"><ele>552.0</ele><time>2026-04-30T15:18:56.993Z</time></trkpt><trkpt lat="40.67913455636642" lon="9.370364366253025"><ele>552.0</ele><time>2026-04-30T15:18:57.993Z</time></trkpt><trkpt lat="40.67918823924023" lon="9.370109452838843"><ele>552.0</ele><time>2026-04-30T15:18:58.994Z</time></trkpt><trkpt lat="40.67925546168741" lon="9.369877937130505"><ele>552.0</ele><time>2026-04-30T15:18:59.994Z</time></trkpt><trkpt lat="40.679301850390885" lon="9.369651533485547"><ele>553.0</ele><time>2026-04-30T15:19:00.994Z</time></trkpt><trkpt lat="40.67934424470581" lon="9.369430319218196"><ele>554.0</ele><time>2026-04-30T15:19:01.994Z</time></trkpt><trkpt lat="40.67938496449148" lon="9.36920891413093"><ele>555.0</ele><time>2026-04-30T15:19:02.994Z</time></trkpt><trkpt lat="40.679424286839165" lon="9.368989049692837"><ele>557.3333333333334</ele><time>2026-04-30T15:19:03.994Z</time></trkpt><trkpt lat="40.679461790383925" lon="9.368787530836698"><ele>559.6666666666667</ele><time>2026-04-30T15:19:04.994Z</time></trkpt><trkpt lat="40.679497503810474" lon="9.368592732843537"><ele>562.0</ele><time>2026-04-30T15:19:05.994Z</time></trkpt><trkpt lat="40.679531046049895" lon="9.368396461413012"><ele>562.0</ele><time>2026-04-30T15:19:06.994Z</time></trkpt><trkpt lat="40.679565356718534" lon="9.368203825605056"><ele>562.0</ele><time>2026-04-30T15:19:07.994Z</time></trkpt><trkpt lat="40.679598329380994" lon="9.368010133983514"><ele>562.0</ele><time>2026-04-30T15:19:08.994Z</time></trkpt><trkpt lat="40.679631188829156" lon="9.367822899134042"><ele>562.0</ele><time>2026-04-30T15:19:09.994Z</time></trkpt><trkpt lat="40.67966904229342" lon="9.367636229235092"><ele>562.3333333333334</ele><time>2026-04-30T15:19:10.994Z</time></trkpt><trkpt lat="40.67970351760081" lon="9.367451014277925"><ele>562.6666666666666</ele><time>2026-04-30T15:19:11.994Z</time></trkpt><trkpt lat="40.679731900672394" lon="9.36725761054762"><ele>563.0</ele><time>2026-04-30T15:19:12.994Z</time></trkpt><trkpt lat="40.679761992542595" lon="9.367051045913808"><ele>564.3333333333333</ele><time>2026-04-30T15:19:13.994Z</time></trkpt><trkpt lat="40.67979780360707" lon="9.366848530009838"><ele>565.6666666666666</ele><time>2026-04-30T15:19:14.994Z</time></trkpt><trkpt lat="40.67983674013449" lon="9.366647859668408"><ele>567.0</ele><time>2026-04-30T15:19:15.994Z</time></trkpt><trkpt lat="40.67988590562278" lon="9.366442924383126"><ele>566.0</ele><time>2026-04-30T15:19:16.994Z</time></trkpt><trkpt lat="40.67994202245723" lon="9.366229797688726"><ele>565.0</ele><time>2026-04-30T15:19:17.994Z</time></trkpt><trkpt lat="40.68000039974946" lon="9.366013256462509"><ele>564.0</ele><time>2026-04-30T15:19:18.994Z</time></trkpt><trkpt lat="40.6800574424924" lon="9.36580091317039"><ele>564.0</ele><time>2026-04-30T15:19:19.994Z</time></trkpt><trkpt lat="40.68011047708611" lon="9.365569858780708"><ele>564.0</ele><time>2026-04-30T15:19:20.994Z</time></trkpt><trkpt lat="40.68016758444126" lon="9.365337730839778"><ele>564.0</ele><time>2026-04-30T15:19:21.994Z</time></trkpt><trkpt lat="40.68021659688948" lon="9.365094564060383"><ele>563.6666666666666</ele><time>2026-04-30T15:19:22.994Z</time></trkpt><trkpt lat="40.68026863284388" lon="9.364862129015462"><ele>563.3333333333333</ele><time>2026-04-30T15:19:23.994Z</time></trkpt><trkpt lat="40.68031992786135" lon="9.364635396176922"><ele>563.0</ele><time>2026-04-30T15:19:24.994Z</time></trkpt><trkpt lat="40.68038544996608" lon="9.364436204281123"><ele>563.0</ele><time>2026-04-30T15:19:25.994Z</time></trkpt><trkpt lat="40.68043327958247" lon="9.364227417822397"><ele>563.0</ele><time>2026-04-30T15:19:26.994Z</time></trkpt><trkpt lat="40.680468568453875" lon="9.364017429614902"><ele>563.0</ele><time>2026-04-30T15:19:27.994Z</time></trkpt><trkpt lat="40.680493176797675" lon="9.363808751917526"><ele>563.0</ele><time>2026-04-30T15:19:28.994Z</time></trkpt><trkpt lat="40.68050815355256" lon="9.36359060719492"><ele>563.0</ele><time>2026-04-30T15:19:29.994Z</time></trkpt><trkpt lat="40.68049040757283" lon="9.363367565943882"><ele>563.0</ele><time>2026-04-30T15:19:30.994Z</time></trkpt><trkpt lat="40.680494820467366" lon="9.363143344025444"><ele>562.6666666666666</ele><time>2026-04-30T15:19:31.994Z</time></trkpt><trkpt lat="40.68047759976069" lon="9.36291460252875"><ele>562.3333333333334</ele><time>2026-04-30T15:19:32.994Z</time></trkpt><trkpt lat="40.680459848704935" lon="9.362678816436768"><ele>562.0</ele><time>2026-04-30T15:19:33.994Z</time></trkpt><trkpt lat="40.68044137098388" lon="9.362439023583729"><ele>563.0</ele><time>2026-04-30T15:19:34.994Z</time></trkpt><trkpt lat="40.680422104525405" lon="9.362191574021434"><ele>564.0</ele><time>2026-04-30T15:19:35.994Z</time></trkpt><trkpt lat="40.6804027131425" lon="9.36194252002303"><ele>565.0</ele><time>2026-04-30T15:19:36.994Z</time></trkpt><trkpt lat="40.68038360585625" lon="9.361697114549363"><ele>565.0</ele><time>2026-04-30T15:19:37.994Z</time></trkpt><trkpt lat="40.68036473057761" lon="9.361454689673318"><ele>565.0</ele><time>2026-04-30T15:19:38.994Z</time></trkpt><trkpt lat="40.68034732525123" lon="9.361224085140442"><ele>565.0</ele><time>2026-04-30T15:19:39.994Z</time></trkpt><trkpt lat="40.68033169344613" lon="9.361002032703828"><ele>565.6666666666667</ele><time>2026-04-30T15:19:40.994Z</time></trkpt><trkpt lat="40.680315028754876" lon="9.360781318252293"><ele>566.3333333333334</ele><time>2026-04-30T15:19:41.994Z</time></trkpt><trkpt lat="40.680298721642345" lon="9.360566958644617"><ele>567.0</ele><time>2026-04-30T15:19:42.994Z</time></trkpt><trkpt lat="40.68028103187663" lon="9.360358110652932"><ele>567.25</ele><time>2026-04-30T15:19:43.994Z</time></trkpt><trkpt lat="40.68026673443372" lon="9.360162949050213"><ele>567.5</ele><time>2026-04-30T15:19:44.994Z</time></trkpt><trkpt lat="40.680252973527175" lon="9.359973631535073"><ele>567.75</ele><time>2026-04-30T15:19:45.994Z</time></trkpt><trkpt lat="40.68023940301551" lon="9.35978990089814"><ele>568.0</ele><time>2026-04-30T15:19:46.994Z</time></trkpt><trkpt lat="40.68022604664112" lon="9.359609970207606"><ele>568.5</ele><time>2026-04-30T15:19:47.994Z</time></trkpt><trkpt lat="40.68021295108651" lon="9.35943355313785"><ele>569.0</ele><time>2026-04-30T15:19:48.994Z</time></trkpt><trkpt lat="40.680200758909706" lon="9.359284090784262"><ele>569.5</ele><time>2026-04-30T15:19:49.994Z</time></trkpt><trkpt lat="40.68024094683817" lon="9.359149783572631"><ele>570.0</ele><time>2026-04-30T15:19:50.994Z</time></trkpt><trkpt lat="40.68029156990638" lon="9.359016299184713"><ele>571.3333333333334</ele><time>2026-04-30T15:19:51.994Z</time></trkpt><trkpt lat="40.68034410360837" lon="9.358902068972254"><ele>572.6666666666666</ele><time>2026-04-30T15:19:52.994Z</time></trkpt><trkpt lat="40.680397987742175" lon="9.358804211698502"><ele>574.0</ele><time>2026-04-30T15:19:53.994Z</time></trkpt><trkpt lat="40.680471022456366" lon="9.358757355635918"><ele>575.3333333333333</ele><time>2026-04-30T15:19:54.994Z</time></trkpt><trkpt lat="40.68054671162331" lon="9.358720079032462"><ele>576.6666666666666</ele><time>2026-04-30T15:19:55.994Z</time></trkpt><trkpt lat="40.68060747895808" lon="9.358668936691371"><ele>578.0</ele><time>2026-04-30T15:19:56.994Z</time></trkpt><trkpt lat="40.68069328573934" lon="9.358586984589216"><ele>578.1999999999999</ele><time>2026-04-30T15:19:58.994Z</time></trkpt><trkpt lat="40.6806988330793" lon="9.358445740441033"><ele>578.4</ele><time>2026-04-30T15:19:59.994Z</time></trkpt><trkpt lat="40.68069652841206" lon="9.358334424676018"><ele>578.5999999999999</ele><time>2026-04-30T15:20:00.994Z</time></trkpt><trkpt lat="40.68068759128877" lon="9.358212795090623"><ele>578.8</ele><time>2026-04-30T15:20:01.995Z</time></trkpt><trkpt lat="40.68065340628244" lon="9.358092232608747"><ele>579.0</ele><time>2026-04-30T15:20:02.995Z</time></trkpt><trkpt lat="40.680599068927904" lon="9.357992053515863"><ele>578.5</ele><time>2026-04-30T15:20:03.995Z</time></trkpt><trkpt lat="40.68050353704679" lon="9.357933702075275"><ele>578.0</ele><time>2026-04-30T15:20:04.995Z</time></trkpt><trkpt lat="40.68041230260057" lon="9.35786950830177"><ele>577.5</ele><time>2026-04-30T15:20:05.995Z</time></trkpt><trkpt lat="40.68030064161632" lon="9.357810221311407"><ele>577.0</ele><time>2026-04-30T15:20:06.995Z</time></trkpt><trkpt lat="40.680175476833774" lon="9.35775019936617"><ele>575.3333333333334</ele><time>2026-04-30T15:20:07.995Z</time></trkpt><trkpt lat="40.680043819374426" lon="9.357683266472199"><ele>573.6666666666666</ele><time>2026-04-30T15:20:08.995Z</time></trkpt><trkpt lat="40.67989964862645" lon="9.357606063793131"><ele>572.0</ele><time>2026-04-30T15:20:09.995Z</time></trkpt><trkpt lat="40.67974326539603" lon="9.357521309056956"><ele>572.0</ele><time>2026-04-30T15:20:10.995Z</time></trkpt><trkpt lat="40.679582771730836" lon="9.357434526965088"><ele>572.0</ele><time>2026-04-30T15:20:11.995Z</time></trkpt><trkpt lat="40.67941863765403" lon="9.35734835811114"><ele>572.0</ele><time>2026-04-30T15:20:12.995Z</time></trkpt><trkpt lat="40.67926047439799" lon="9.357269471877897"><ele>571.6666666666666</ele><time>2026-04-30T15:20:13.995Z</time></trkpt><trkpt lat="40.67910708357745" lon="9.357196263573954"><ele>571.3333333333334</ele><time>2026-04-30T15:20:14.995Z</time></trkpt><trkpt lat="40.67895973370169" lon="9.357134721727766"><ele>571.0</ele><time>2026-04-30T15:20:15.995Z</time></trkpt><trkpt lat="40.67882098298223" lon="9.357092283633284"><ele>571.0</ele><time>2026-04-30T15:20:16.995Z</time></trkpt><trkpt lat="40.67868784412799" lon="9.357085870014105"><ele>571.0</ele><time>2026-04-30T15:20:17.995Z</time></trkpt><trkpt lat="40.678555075894955" lon="9.357104418280919"><ele>571.0</ele><time>2026-04-30T15:20:18.995Z</time></trkpt><trkpt lat="40.67842677241844" lon="9.357145803126727"><ele>571.0</ele><time>2026-04-30T15:20:19.995Z</time></trkpt><trkpt lat="40.678310325294" lon="9.35722197941862"><ele>571.25</ele><time>2026-04-30T15:20:20.995Z</time></trkpt><trkpt lat="40.67819726020563" lon="9.35732838626015"><ele>571.5</ele><time>2026-04-30T15:20:21.995Z</time></trkpt><trkpt lat="40.67807996951616" lon="9.357444241711327"><ele>571.75</ele><time>2026-04-30T15:20:22.995Z</time></trkpt><trkpt lat="40.67795514274739" lon="9.357579072267644"><ele>572.0</ele><time>2026-04-30T15:20:23.995Z</time></trkpt><trkpt lat="40.67782485727455" lon="9.357721746177303"><ele>572.6666666666666</ele><time>2026-04-30T15:20:24.995Z</time></trkpt><trkpt lat="40.6776850737196" lon="9.357864431120602"><ele>573.3333333333334</ele><time>2026-04-30T15:20:25.995Z</time></trkpt><trkpt lat="40.67754121155003" lon="9.358014494179436"><ele>574.0</ele><time>2026-04-30T15:20:26.995Z</time></trkpt><trkpt lat="40.67739409401025" lon="9.358168258843069"><ele>574.0</ele><time>2026-04-30T15:20:27.995Z</time></trkpt><trkpt lat="40.677240561959316" lon="9.35833127806753"><ele>574.0</ele><time>2026-04-30T15:20:28.995Z</time></trkpt><trkpt lat="40.677088879894924" lon="9.358493419079547"><ele>574.0</ele><time>2026-04-30T15:20:29.995Z</time></trkpt><trkpt lat="40.67693987375737" lon="9.358650274666982"><ele>577.0</ele><time>2026-04-30T15:20:30.995Z</time></trkpt><trkpt lat="40.67679073902058" lon="9.35880676181051"><ele>580.0</ele><time>2026-04-30T15:20:31.995Z</time></trkpt><trkpt lat="40.67664473294703" lon="9.358960775180826"><ele>583.0</ele><time>2026-04-30T15:20:32.995Z</time></trkpt><trkpt lat="40.67650378779951" lon="9.359107412132712"><ele>583.0</ele><time>2026-04-30T15:20:33.995Z</time></trkpt><trkpt lat="40.67637605587124" lon="9.359244576860586"><ele>583.0</ele><time>2026-04-30T15:20:34.995Z</time></trkpt><trkpt lat="40.676255712027434" lon="9.35935099004548"><ele>583.0</ele><time>2026-04-30T15:20:35.995Z</time></trkpt><trkpt lat="40.67614290653759" lon="9.359434505020115"><ele>583.0</ele><time>2026-04-30T15:20:36.995Z</time></trkpt><trkpt lat="40.676030837344065" lon="9.35948031983674"><ele>584.25</ele><time>2026-04-30T15:20:37.995Z</time></trkpt><trkpt lat="40.67591692508218" lon="9.359494569374931"><ele>585.5</ele><time>2026-04-30T15:20:38.995Z</time></trkpt><trkpt lat="40.67579826538288" lon="9.359475120267334"><ele>586.75</ele><time>2026-04-30T15:20:39.995Z</time></trkpt><trkpt lat="40.675683693546794" lon="9.359435962205787"><ele>588.0</ele><time>2026-04-30T15:20:40.995Z</time></trkpt><trkpt lat="40.6755815709638" lon="9.359365560430195"><ele>588.0</ele><time>2026-04-30T15:20:41.995Z</time></trkpt><trkpt lat="40.675484046617726" lon="9.359258047916498"><ele>588.0</ele><time>2026-04-30T15:20:42.995Z</time></trkpt><trkpt lat="40.6753722898119" lon="9.35913004510848"><ele>588.0</ele><time>2026-04-30T15:20:43.995Z</time></trkpt><trkpt lat="40.675246800349555" lon="9.359002051855558"><ele>588.0</ele><time>2026-04-30T15:20:44.995Z</time></trkpt><trkpt lat="40.67511823447417" lon="9.358880120760796"><ele>589.0</ele><time>2026-04-30T15:20:45.995Z</time></trkpt><trkpt lat="40.67500428378928" lon="9.358763714293746"><ele>590.0</ele><time>2026-04-30T15:20:46.995Z</time></trkpt><trkpt lat="40.67491375993564" lon="9.358628089528619"><ele>591.0</ele><time>2026-04-30T15:20:47.995Z</time></trkpt><trkpt lat="40.67484109667911" lon="9.358475566325877"><ele>592.0</ele><time>2026-04-30T15:20:48.995Z</time></trkpt><trkpt lat="40.67477726107157" lon="9.358302406878936"><ele>592.0</ele><time>2026-04-30T15:20:49.995Z</time></trkpt><trkpt lat="40.674721521853996" lon="9.358109083382057"><ele>592.0</ele><time>2026-04-30T15:20:50.995Z</time></trkpt><trkpt lat="40.674663118605224" lon="9.35791654278621"><ele>592.0</ele><time>2026-04-30T15:20:51.995Z</time></trkpt><trkpt lat="40.674602188276616" lon="9.357708354432212"><ele>591.3333333333334</ele><time>2026-04-30T15:20:52.994Z</time></trkpt><trkpt lat="40.674564443661176" lon="9.357494034443288"><ele>590.6666666666666</ele><time>2026-04-30T15:20:53.994Z</time></trkpt><trkpt lat="40.67450326138171" lon="9.357293368758118"><ele>590.0</ele><time>2026-04-30T15:20:54.994Z</time></trkpt><trkpt lat="40.67443681049891" lon="9.357105340355675"><ele>590.0</ele><time>2026-04-30T15:20:55.994Z</time></trkpt><trkpt lat="40.67437593602887" lon="9.35693214109124"><ele>590.0</ele><time>2026-04-30T15:20:56.994Z</time></trkpt><trkpt lat="40.67430677760201" lon="9.356784039637311"><ele>590.0</ele><time>2026-04-30T15:20:57.994Z</time></trkpt><trkpt lat="40.674234969414414" lon="9.35666448988064"><ele>590.0</ele><time>2026-04-30T15:20:58.994Z</time></trkpt><trkpt lat="40.67415981714718" lon="9.356590021445756"><ele>590.0</ele><time>2026-04-30T15:20:59.994Z</time></trkpt><trkpt lat="40.67407081468468" lon="9.356557626234924"><ele>590.0</ele><time>2026-04-30T15:21:00.994Z</time></trkpt><trkpt lat="40.67393809921005" lon="9.356528219377404"><ele>590.0</ele><time>2026-04-30T15:21:01.994Z</time></trkpt><trkpt lat="40.673775731903234" lon="9.35649810557461"><ele>590.0</ele><time>2026-04-30T15:21:02.993Z</time></trkpt><trkpt lat="40.67359168412197" lon="9.356459307179803"><ele>590.0</ele><time>2026-04-30T15:21:03.993Z</time></trkpt><trkpt lat="40.67338506825127" lon="9.356418547896824"><ele>590.0</ele><time>2026-04-30T15:21:04.993Z</time></trkpt><trkpt lat="40.673211363627495" lon="9.356442678877421"><ele>590.0</ele><time>2026-04-30T15:21:06.994Z</time></trkpt><trkpt lat="40.6730294563499" lon="9.356426678073584"><ele>590.0</ele><time>2026-04-30T15:21:07.994Z</time></trkpt><trkpt lat="40.672839279588416" lon="9.356413931053153"><ele>590.0</ele><time>2026-04-30T15:21:08.994Z</time></trkpt><trkpt lat="40.67264501422377" lon="9.356400467614254"><ele>590.0</ele><time>2026-04-30T15:21:09.994Z</time></trkpt><trkpt lat="40.672451178481786" lon="9.356392758688486"><ele>591.0</ele><time>2026-04-30T15:21:10.994Z</time></trkpt><trkpt lat="40.67226413520294" lon="9.356383033325107"><ele>592.0</ele><time>2026-04-30T15:21:11.994Z</time></trkpt><trkpt lat="40.672071618338194" lon="9.356373583006054"><ele>593.0</ele><time>2026-04-30T15:21:12.994Z</time></trkpt><trkpt lat="40.67187796463483" lon="9.356351003856167"><ele>594.6666666666666</ele><time>2026-04-30T15:21:13.994Z</time></trkpt><trkpt lat="40.671704739950364" lon="9.3563449509759"><ele>596.3333333333334</ele><time>2026-04-30T15:21:14.994Z</time></trkpt><trkpt lat="40.671544037323635" lon="9.356326525172998"><ele>598.0</ele><time>2026-04-30T15:21:15.994Z</time></trkpt><trkpt lat="40.671408547201295" lon="9.356301439315667"><ele>598.0</ele><time>2026-04-30T15:21:16.994Z</time></trkpt><trkpt lat="40.671285312618025" lon="9.356260298952993"><ele>598.0</ele><time>2026-04-30T15:21:17.994Z</time></trkpt><trkpt lat="40.671187808712105" lon="9.356156096365124"><ele>598.0</ele><time>2026-04-30T15:21:18.994Z</time></trkpt><trkpt lat="40.671079160731594" lon="9.356041672825228"><ele>598.0</ele><time>2026-04-30T15:21:19.994Z</time></trkpt><trkpt lat="40.67096118745546" lon="9.355913243923053"><ele>596.6666666666667</ele><time>2026-04-30T15:21:20.994Z</time></trkpt><trkpt lat="40.67083917413084" lon="9.35577497397598"><ele>595.3333333333334</ele><time>2026-04-30T15:21:21.994Z</time></trkpt><trkpt lat="40.67073183303456" lon="9.355635005317023"><ele>594.0</ele><time>2026-04-30T15:21:22.994Z</time></trkpt><trkpt lat="40.67064856212954" lon="9.355479379719721"><ele>594.0</ele><time>2026-04-30T15:21:23.994Z</time></trkpt><trkpt lat="40.6705725136163" lon="9.355309711696886"><ele>594.0</ele><time>2026-04-30T15:21:24.994Z</time></trkpt><trkpt lat="40.67050464080095" lon="9.355121332821492"><ele>594.0</ele><time>2026-04-30T15:21:25.994Z</time></trkpt><trkpt lat="40.67044164594866" lon="9.354909080536249"><ele>595.0</ele><time>2026-04-30T15:21:26.994Z</time></trkpt><trkpt lat="40.67037800898827" lon="9.354677269811972"><ele>596.0</ele><time>2026-04-30T15:21:27.994Z</time></trkpt><trkpt lat="40.670305181231626" lon="9.354413744713572"><ele>597.0</ele><time>2026-04-30T15:21:28.994Z</time></trkpt><trkpt lat="40.670244335974346" lon="9.354194440146872"><ele>593.0</ele><time>2026-04-30T15:21:29.994Z</time></trkpt><trkpt lat="40.67018249927275" lon="9.353972035327118"><ele>589.0</ele><time>2026-04-30T15:21:30.994Z</time></trkpt><trkpt lat="40.67012228346403" lon="9.353757386019689"><ele>585.0</ele><time>2026-04-30T15:21:31.994Z</time></trkpt><trkpt lat="40.67007371805446" lon="9.353577892359572"><ele>585.0</ele><time>2026-04-30T15:21:32.994Z</time></trkpt><trkpt lat="40.670040303285944" lon="9.353399689783142"><ele>585.0</ele><time>2026-04-30T15:21:33.994Z</time></trkpt><trkpt lat="40.67002853704175" lon="9.353215581917649"><ele>585.0</ele><time>2026-04-30T15:21:34.994Z</time></trkpt><trkpt lat="40.67002570160604" lon="9.353029160717616"><ele>585.0</ele><time>2026-04-30T15:21:35.994Z</time></trkpt><trkpt lat="40.67000459238189" lon="9.352857406298694"><ele>584.25</ele><time>2026-04-30T15:21:36.994Z</time></trkpt><trkpt lat="40.66995922295859" lon="9.352696827334913"><ele>583.5</ele><time>2026-04-30T15:21:37.994Z</time></trkpt><trkpt lat="40.66989218402291" lon="9.352589710669198"><ele>582.75</ele><time>2026-04-30T15:21:38.994Z</time></trkpt><trkpt lat="40.669827405941135" lon="9.35248440788748"><ele>582.0</ele><time>2026-04-30T15:21:39.994Z</time></trkpt><trkpt lat="40.66973251545719" lon="9.352403181220035"><ele>582.0</ele><time>2026-04-30T15:21:40.994Z</time></trkpt><trkpt lat="40.66960388774985" lon="9.3523107506734"><ele>582.0</ele><time>2026-04-30T15:21:41.994Z</time></trkpt><trkpt lat="40.66947832971859" lon="9.352228937963138"><ele>582.0</ele><time>2026-04-30T15:21:42.994Z</time></trkpt><trkpt lat="40.66936055804762" lon="9.352142062879617"><ele>582.0</ele><time>2026-04-30T15:21:43.994Z</time></trkpt><trkpt lat="40.669235328631366" lon="9.352110545497121"><ele>583.5</ele><time>2026-04-30T15:21:44.994Z</time></trkpt><trkpt lat="40.66911372462976" lon="9.352081559206589"><ele>585.0</ele><time>2026-04-30T15:21:45.994Z</time></trkpt><trkpt lat="40.66897839584765" lon="9.352080018383198"><ele>586.5</ele><time>2026-04-30T15:21:46.994Z</time></trkpt><trkpt lat="40.668838402549575" lon="9.352093702790246"><ele>588.0</ele><time>2026-04-30T15:21:47.994Z</time></trkpt><trkpt lat="40.66868781659323" lon="9.352116288228435"><ele>587.8</ele><time>2026-04-30T15:21:48.994Z</time></trkpt><trkpt lat="40.66855102905726" lon="9.35213883496282"><ele>587.5999999999999</ele><time>2026-04-30T15:21:49.994Z</time></trkpt><trkpt lat="40.66843700439268" lon="9.352151142731373"><ele>587.4000000000001</ele><time>2026-04-30T15:21:50.994Z</time></trkpt><trkpt lat="40.66834122741124" lon="9.352121355994617"><ele>587.2</ele><time>2026-04-30T15:21:51.994Z</time></trkpt><trkpt lat="40.66826022028145" lon="9.352059024321044"><ele>587.0</ele><time>2026-04-30T15:21:52.994Z</time></trkpt><trkpt lat="40.66820708724128" lon="9.351925665622943"><ele>587.0</ele><time>2026-04-30T15:21:53.994Z</time></trkpt><trkpt lat="40.66813222184612" lon="9.351813920470796"><ele>587.0</ele><time>2026-04-30T15:21:54.994Z</time></trkpt><trkpt lat="40.66803296179873" lon="9.351713331273398"><ele>587.0</ele><time>2026-04-30T15:21:55.994Z</time></trkpt><trkpt lat="40.66791724957294" lon="9.35163606078557"><ele>587.0</ele><time>2026-04-30T15:21:56.994Z</time></trkpt><trkpt lat="40.66780553943312" lon="9.351561172033678"><ele>588.75</ele><time>2026-04-30T15:21:57.994Z</time></trkpt><trkpt lat="40.66769715910256" lon="9.351467228866827"><ele>590.5</ele><time>2026-04-30T15:21:58.994Z</time></trkpt><trkpt lat="40.66762158549818" lon="9.351346625713518"><ele>592.25</ele><time>2026-04-30T15:21:59.994Z</time></trkpt><trkpt lat="40.667565417058704" lon="9.351199134417655"><ele>594.0</ele><time>2026-04-30T15:22:00.994Z</time></trkpt><trkpt lat="40.667484012410085" lon="9.351092818053052"><ele>594.0</ele><time>2026-04-30T15:22:01.994Z</time></trkpt><trkpt lat="40.667381485573294" lon="9.351021014342086"><ele>594.0</ele><time>2026-04-30T15:22:02.994Z</time></trkpt><trkpt lat="40.667282534184" lon="9.350955418706022"><ele>594.0</ele><time>2026-04-30T15:22:03.994Z</time></trkpt><trkpt lat="40.66717421501586" lon="9.350895182015904"><ele>594.0</ele><time>2026-04-30T15:22:04.994Z</time></trkpt><trkpt lat="40.66704996046811" lon="9.350840438208017"><ele>595.5</ele><time>2026-04-30T15:22:05.994Z</time></trkpt><trkpt lat="40.66692282573509" lon="9.35078313740464"><ele>597.0</ele><time>2026-04-30T15:22:06.994Z</time></trkpt><trkpt lat="40.66679130384229" lon="9.350697102927864"><ele>598.5</ele><time>2026-04-30T15:22:07.994Z</time></trkpt><trkpt lat="40.66666939888739" lon="9.350581333133851"><ele>600.0</ele><time>2026-04-30T15:22:08.994Z</time></trkpt><trkpt lat="40.666556035296566" lon="9.35043553759117"><ele>600.0</ele><time>2026-04-30T15:22:09.994Z</time></trkpt><trkpt lat="40.66643188255846" lon="9.350297306911331"><ele>600.0</ele><time>2026-04-30T15:22:10.994Z</time></trkpt><trkpt lat="40.666302897002616" lon="9.350162854236487"><ele>600.0</ele><time>2026-04-30T15:22:11.994Z</time></trkpt><trkpt lat="40.66615699206872" lon="9.350053406209565"><ele>597.0</ele><time>2026-04-30T15:22:12.994Z</time></trkpt><trkpt lat="40.6660128428889" lon="9.349920234860456"><ele>594.0</ele><time>2026-04-30T15:22:13.994Z</time></trkpt><trkpt lat="40.665862474474224" lon="9.349795769332076"><ele>591.0</ele><time>2026-04-30T15:22:14.994Z</time></trkpt><trkpt lat="40.665709943383156" lon="9.349676967001134"><ele>591.0</ele><time>2026-04-30T15:22:15.994Z</time></trkpt><trkpt lat="40.665570410023356" lon="9.349551443141905"><ele>591.0</ele><time>2026-04-30T15:22:16.994Z</time></trkpt><trkpt lat="40.665422020776056" lon="9.34945269776296"><ele>591.0</ele><time>2026-04-30T15:22:17.994Z</time></trkpt><trkpt lat="40.66527714253994" lon="9.349375190074896"><ele>588.0</ele><time>2026-04-30T15:22:18.994Z</time></trkpt><trkpt lat="40.665135968233244" lon="9.349314382780177"><ele>585.0</ele><time>2026-04-30T15:22:19.994Z</time></trkpt><trkpt lat="40.66499703751934" lon="9.349276660734269"><ele>582.0</ele><time>2026-04-30T15:22:20.994Z</time></trkpt><trkpt lat="40.66486902831824" lon="9.34925549300163"><ele>579.0</ele><time>2026-04-30T15:22:21.994Z</time></trkpt><trkpt lat="40.66475828019254" lon="9.349204880498071"><ele>579.0</ele><time>2026-04-30T15:22:22.994Z</time></trkpt><trkpt lat="40.66467342277462" lon="9.349118485765134"><ele>579.0</ele><time>2026-04-30T15:22:23.994Z</time></trkpt><trkpt lat="40.664589845568806" lon="9.348989194645121"><ele>579.0</ele><time>2026-04-30T15:22:24.994Z</time></trkpt><trkpt lat="40.664463408500374" lon="9.348943985900283"><ele>579.0</ele><time>2026-04-30T15:22:25.994Z</time></trkpt><trkpt lat="40.664360398719246" lon="9.348857181571871"><ele>579.75</ele><time>2026-04-30T15:22:26.994Z</time></trkpt><trkpt lat="40.66422933234915" lon="9.348801351985186"><ele>580.5</ele><time>2026-04-30T15:22:27.994Z</time></trkpt><trkpt lat="40.66409130038393" lon="9.348743349734285"><ele>581.25</ele><time>2026-04-30T15:22:28.994Z</time></trkpt><trkpt lat="40.663958004186554" lon="9.348668318126139"><ele>582.0</ele><time>2026-04-30T15:22:29.994Z</time></trkpt><trkpt lat="40.66382385783792" lon="9.348566475629214"><ele>582.0</ele><time>2026-04-30T15:22:30.994Z</time></trkpt><trkpt lat="40.66369363360151" lon="9.348444515490957"><ele>582.0</ele><time>2026-04-30T15:22:31.994Z</time></trkpt><trkpt lat="40.663582906011506" lon="9.348308417281617"><ele>582.0</ele><time>2026-04-30T15:22:32.994Z</time></trkpt><trkpt lat="40.66347436028246" lon="9.348186165654553"><ele>582.25</ele><time>2026-04-30T15:22:33.994Z</time></trkpt><trkpt lat="40.663380007103164" lon="9.348077235554822"><ele>582.5</ele><time>2026-04-30T15:22:34.994Z</time></trkpt><trkpt lat="40.66326818985611" lon="9.34800176249649"><ele>582.75</ele><time>2026-04-30T15:22:35.994Z</time></trkpt><trkpt lat="40.6631399621356" lon="9.34794357514265"><ele>583.0</ele><time>2026-04-30T15:22:36.994Z</time></trkpt><trkpt lat="40.66299751270328" lon="9.347869354255696"><ele>583.0</ele><time>2026-04-30T15:22:37.994Z</time></trkpt><trkpt lat="40.66284811950164" lon="9.3477853554907"><ele>583.0</ele><time>2026-04-30T15:22:38.994Z</time></trkpt><trkpt lat="40.66269374169289" lon="9.347691954964832"><ele>583.0</ele><time>2026-04-30T15:22:39.994Z</time></trkpt><trkpt lat="40.662550550397434" lon="9.347601992933262"><ele>579.6666666666667</ele><time>2026-04-30T15:22:40.994Z</time></trkpt><trkpt lat="40.66239277419148" lon="9.347521701827093"><ele>576.3333333333334</ele><time>2026-04-30T15:22:41.994Z</time></trkpt><trkpt lat="40.66224483393767" lon="9.34746502921312"><ele>573.0</ele><time>2026-04-30T15:22:42.994Z</time></trkpt><trkpt lat="40.66208979002214" lon="9.347431274868178"><ele>571.0</ele><time>2026-04-30T15:22:43.994Z</time></trkpt><trkpt lat="40.66194221087811" lon="9.347401657668518"><ele>569.0</ele><time>2026-04-30T15:22:44.994Z</time></trkpt><trkpt lat="40.66179451265846" lon="9.347361587527734"><ele>567.0</ele><time>2026-04-30T15:22:45.994Z</time></trkpt><trkpt lat="40.661654604958684" lon="9.347308926537485"><ele>565.0</ele><time>2026-04-30T15:22:46.994Z</time></trkpt><trkpt lat="40.661514762567265" lon="9.347231413824321"><ele>566.0</ele><time>2026-04-30T15:22:47.994Z</time></trkpt><trkpt lat="40.66137503675752" lon="9.347125890838548"><ele>567.0</ele><time>2026-04-30T15:22:48.994Z</time></trkpt><trkpt lat="40.661234387198036" lon="9.34701640016872"><ele>568.0</ele><time>2026-04-30T15:22:49.994Z</time></trkpt><trkpt lat="40.66110167623717" lon="9.34688589808549"><ele>568.0</ele><time>2026-04-30T15:22:50.994Z</time></trkpt><trkpt lat="40.660962616431185" lon="9.34676635551246"><ele>568.0</ele><time>2026-04-30T15:22:51.994Z</time></trkpt><trkpt lat="40.66083321210013" lon="9.346660912635237"><ele>568.0</ele><time>2026-04-30T15:22:52.994Z</time></trkpt><trkpt lat="40.66073616987797" lon="9.346558939336933"><ele>568.0</ele><time>2026-04-30T15:22:53.994Z</time></trkpt><trkpt lat="40.66064775096209" lon="9.3465386236783"><ele>568.0</ele><time>2026-04-30T15:22:54.994Z</time></trkpt><trkpt lat="40.66056802559971" lon="9.346520358947476"><ele>568.0</ele><time>2026-04-30T15:22:55.994Z</time></trkpt><trkpt lat="40.6605021813544" lon="9.346535817270508"><ele>568.0</ele><time>2026-04-30T15:22:56.994Z</time></trkpt><trkpt lat="40.66044886842384" lon="9.346595544055289"><ele>568.0</ele><time>2026-04-30T15:22:57.994Z</time></trkpt><trkpt lat="40.66040997912111" lon="9.346682905377302"><ele>568.0</ele><time>2026-04-30T15:22:58.993Z</time></trkpt><trkpt lat="40.660390854052025" lon="9.34680962883532"><ele>568.0</ele><time>2026-04-30T15:22:59.994Z</time></trkpt><trkpt lat="40.660397647973205" lon="9.346929676699679"><ele>568.0</ele><time>2026-04-30T15:23:00.994Z</time></trkpt><trkpt lat="40.660400476548055" lon="9.347064880201966"><ele>568.0</ele><time>2026-04-30T15:23:01.993Z</time></trkpt><trkpt lat="40.66041125996924" lon="9.347207087520342"><ele>568.0</ele><time>2026-04-30T15:23:02.993Z</time></trkpt><trkpt lat="40.66038093500943" lon="9.347342081959736"><ele>568.0</ele><time>2026-04-30T15:23:03.993Z</time></trkpt><trkpt lat="40.66033046414397" lon="9.347456319673022"><ele>568.0</ele><time>2026-04-30T15:23:04.993Z</time></trkpt><trkpt lat="40.660267211230234" lon="9.34757499945927"><ele>569.8</ele><time>2026-04-30T15:23:05.993Z</time></trkpt><trkpt lat="40.660181566794435" lon="9.347688209527972"><ele>571.5999999999999</ele><time>2026-04-30T15:23:06.993Z</time></trkpt><trkpt lat="40.66010230684726" lon="9.347790790592562"><ele>573.4000000000001</ele><time>2026-04-30T15:23:07.994Z</time></trkpt><trkpt lat="40.660007975255596" lon="9.347852680508277"><ele>575.2</ele><time>2026-04-30T15:23:08.993Z</time></trkpt><trkpt lat="40.65990780104426" lon="9.347897262163547"><ele>577.0</ele><time>2026-04-30T15:23:09.993Z</time></trkpt><trkpt lat="40.65979272813357" lon="9.34791701762759"><ele>577.0</ele><time>2026-04-30T15:23:10.994Z</time></trkpt><trkpt lat="40.65967398474981" lon="9.347903618633946"><ele>577.0</ele><time>2026-04-30T15:23:11.993Z</time></trkpt><trkpt lat="40.65955491486408" lon="9.347887362483338"><ele>577.0</ele><time>2026-04-30T15:23:12.993Z</time></trkpt><trkpt lat="40.659431392591884" lon="9.347876364878744"><ele>577.0</ele><time>2026-04-30T15:23:13.993Z</time></trkpt><trkpt lat="40.65929790010399" lon="9.347846449128044"><ele>577.25</ele><time>2026-04-30T15:23:14.993Z</time></trkpt><trkpt lat="40.659165856849086" lon="9.347784783102213"><ele>577.5</ele><time>2026-04-30T15:23:15.993Z</time></trkpt><trkpt lat="40.65904360607902" lon="9.347730555922938"><ele>577.75</ele><time>2026-04-30T15:23:16.993Z</time></trkpt><trkpt lat="40.6589258445152" lon="9.347682079975721"><ele>578.0</ele><time>2026-04-30T15:23:17.993Z</time></trkpt><trkpt lat="40.658814695748454" lon="9.347653438085096"><ele>578.0</ele><time>2026-04-30T15:23:18.993Z</time></trkpt><trkpt lat="40.65869956971283" lon="9.347669054354785"><ele>578.0</ele><time>2026-04-30T15:23:19.993Z</time></trkpt><trkpt lat="40.65859532435544" lon="9.347700877862584"><ele>578.0</ele><time>2026-04-30T15:23:20.993Z</time></trkpt><trkpt lat="40.6584864574919" lon="9.347753083754204"><ele>578.0</ele><time>2026-04-30T15:23:21.993Z</time></trkpt><trkpt lat="40.65838318769505" lon="9.347821128100936"><ele>577.5</ele><time>2026-04-30T15:23:22.993Z</time></trkpt><trkpt lat="40.658280968773056" lon="9.347844205713084"><ele>577.0</ele><time>2026-04-30T15:23:23.993Z</time></trkpt><trkpt lat="40.658168987053735" lon="9.347817186595696"><ele>576.5</ele><time>2026-04-30T15:23:24.993Z</time></trkpt><trkpt lat="40.658052127116584" lon="9.347763641006772"><ele>576.0</ele><time>2026-04-30T15:23:25.993Z</time></trkpt><trkpt lat="40.65794057127997" lon="9.34769406103848"><ele>576.0</ele><time>2026-04-30T15:23:26.993Z</time></trkpt><trkpt lat="40.657832126584594" lon="9.347581050764544"><ele>576.0</ele><time>2026-04-30T15:23:27.993Z</time></trkpt><trkpt lat="40.65772698435357" lon="9.347479718522877"><ele>576.0</ele><time>2026-04-30T15:23:28.993Z</time></trkpt><trkpt lat="40.65762042739953" lon="9.347381239891575"><ele>576.0</ele><time>2026-04-30T15:23:29.993Z</time></trkpt><trkpt lat="40.65752475653474" lon="9.347287089538419"><ele>575.5</ele><time>2026-04-30T15:23:30.993Z</time></trkpt><trkpt lat="40.65744279589158" lon="9.347200276127193"><ele>575.0</ele><time>2026-04-30T15:23:31.993Z</time></trkpt><trkpt lat="40.657382378181254" lon="9.347106182910442"><ele>574.5</ele><time>2026-04-30T15:23:32.993Z</time></trkpt><trkpt lat="40.65733197944098" lon="9.347013577237206"><ele>574.0</ele><time>2026-04-30T15:23:33.993Z</time></trkpt><trkpt lat="40.65726862683463" lon="9.346944285541124"><ele>573.5</ele><time>2026-04-30T15:23:34.993Z</time></trkpt><trkpt lat="40.65719640227948" lon="9.346910361550943"><ele>573.0</ele><time>2026-04-30T15:23:35.993Z</time></trkpt><trkpt lat="40.657118958099666" lon="9.346904273496273"><ele>573.0</ele><time>2026-04-30T15:23:36.993Z</time></trkpt><trkpt lat="40.65705204331603" lon="9.346903757761726"><ele>573.0</ele><time>2026-04-30T15:23:37.993Z</time></trkpt><trkpt lat="40.65698896479618" lon="9.346897164662778"><ele>573.0</ele><time>2026-04-30T15:23:38.993Z</time></trkpt><trkpt lat="40.6569067793736" lon="9.346866093205318"><ele>573.0</ele><time>2026-04-30T15:23:39.993Z</time></trkpt><trkpt lat="40.65681245669872" lon="9.346826424323742"><ele>573.0</ele><time>2026-04-30T15:23:40.993Z</time></trkpt><trkpt lat="40.65670176349547" lon="9.346772682033473"><ele>573.0</ele><time>2026-04-30T15:23:41.993Z</time></trkpt><trkpt lat="40.65658327655428" lon="9.34671080349064"><ele>573.75</ele><time>2026-04-30T15:23:42.993Z</time></trkpt><trkpt lat="40.656467244704416" lon="9.346648563063125"><ele>574.5</ele><time>2026-04-30T15:23:43.993Z</time></trkpt><trkpt lat="40.656349865892025" lon="9.346573719210745"><ele>575.25</ele><time>2026-04-30T15:23:44.993Z</time></trkpt><trkpt lat="40.65623988982418" lon="9.346486274330388"><ele>576.0</ele><time>2026-04-30T15:23:45.993Z</time></trkpt><trkpt lat="40.65613622734419" lon="9.346383094432657"><ele>579.0</ele><time>2026-04-30T15:23:46.993Z</time></trkpt><trkpt lat="40.65604628144507" lon="9.346257934265823"><ele>582.0</ele><time>2026-04-30T15:23:47.993Z</time></trkpt><trkpt lat="40.655966181540144" lon="9.346116118739069"><ele>585.0</ele><time>2026-04-30T15:23:48.993Z</time></trkpt><trkpt lat="40.655861029502404" lon="9.345946410651818"><ele>588.0</ele><time>2026-04-30T15:23:49.993Z</time></trkpt><trkpt lat="40.65574820081583" lon="9.345763534737394"><ele>588.0</ele><time>2026-04-30T15:23:50.993Z</time></trkpt><trkpt lat="40.655633573420964" lon="9.345581019481859"><ele>588.0</ele><time>2026-04-30T15:23:51.993Z</time></trkpt><trkpt lat="40.65552985625881" lon="9.345409399528222"><ele>588.0</ele><time>2026-04-30T15:23:52.993Z</time></trkpt><trkpt lat="40.65541160815952" lon="9.345245648257373"><ele>589.3333333333334</ele><time>2026-04-30T15:23:53.993Z</time></trkpt><trkpt lat="40.65529972188116" lon="9.345081038107624"><ele>590.6666666666667</ele><time>2026-04-30T15:23:54.993Z</time></trkpt><trkpt lat="40.6551555851552" lon="9.344966121646195"><ele>592.0</ele><time>2026-04-30T15:23:55.993Z</time></trkpt><trkpt lat="40.655010970197736" lon="9.344837680272445"><ele>596.6666666666667</ele><time>2026-04-30T15:23:56.993Z</time></trkpt><trkpt lat="40.65486142377163" lon="9.344709422931098"><ele>601.3333333333334</ele><time>2026-04-30T15:23:57.993Z</time></trkpt><trkpt lat="40.654719390726534" lon="9.344579155444244"><ele>606.0</ele><time>2026-04-30T15:23:58.993Z</time></trkpt><trkpt lat="40.654599783965125" lon="9.344450331944934"><ele>606.0</ele><time>2026-04-30T15:23:59.993Z</time></trkpt><trkpt lat="40.654501256346386" lon="9.344320953542367"><ele>606.0</ele><time>2026-04-30T15:24:00.993Z</time></trkpt><trkpt lat="40.654433379229864" lon="9.344169710822879"><ele>606.0</ele><time>2026-04-30T15:24:01.993Z</time></trkpt><trkpt lat="40.65435687972079" lon="9.344020920219108"><ele>606.0</ele><time>2026-04-30T15:24:02.993Z</time></trkpt><trkpt lat="40.65427025992588" lon="9.343864828908652"><ele>604.6666666666666</ele><time>2026-04-30T15:24:03.993Z</time></trkpt><trkpt lat="40.654223715863374" lon="9.343673117319998"><ele>603.3333333333333</ele><time>2026-04-30T15:24:04.993Z</time></trkpt><trkpt lat="40.65414992309519" lon="9.34348639634831"><ele>602.0</ele><time>2026-04-30T15:24:05.993Z</time></trkpt><trkpt lat="40.6540794851724" lon="9.343319734998989"><ele>602.0</ele><time>2026-04-30T15:24:06.994Z</time></trkpt><trkpt lat="40.654027066585016" lon="9.343154314702875"><ele>602.0</ele><time>2026-04-30T15:24:07.994Z</time></trkpt><trkpt lat="40.653990114828574" lon="9.342986120734421"><ele>602.0</ele><time>2026-04-30T15:24:08.994Z</time></trkpt><trkpt lat="40.65396142212036" lon="9.342831141699019"><ele>602.0</ele><time>2026-04-30T15:24:09.994Z</time></trkpt><trkpt lat="40.65392495938279" lon="9.342721908568727"><ele>603.1666666666666</ele><time>2026-04-30T15:24:10.994Z</time></trkpt><trkpt lat="40.653857685338515" lon="9.34265347921229"><ele>604.3333333333333</ele><time>2026-04-30T15:24:11.994Z</time></trkpt><trkpt lat="40.653798566985024" lon="9.342611325771177"><ele>605.5</ele><time>2026-04-30T15:24:12.994Z</time></trkpt><trkpt lat="40.65373064480051" lon="9.342595827647989"><ele>606.6666666666666</ele><time>2026-04-30T15:24:13.994Z</time></trkpt><trkpt lat="40.653642766813306" lon="9.342594125942847"><ele>607.8333333333334</ele><time>2026-04-30T15:24:14.994Z</time></trkpt><trkpt lat="40.65354446381755" lon="9.342605114568679"><ele>609.0</ele><time>2026-04-30T15:24:15.994Z</time></trkpt><trkpt lat="40.65344080399791" lon="9.342613458696974"><ele>609.0</ele><time>2026-04-30T15:24:16.994Z</time></trkpt><trkpt lat="40.65332815403555" lon="9.34261482708047"><ele>609.0</ele><time>2026-04-30T15:24:17.994Z</time></trkpt><trkpt lat="40.65321132814425" lon="9.342583315570733"><ele>609.0</ele><time>2026-04-30T15:24:18.994Z</time></trkpt><trkpt lat="40.65309370138447" lon="9.34253432540307"><ele>609.0</ele><time>2026-04-30T15:24:19.994Z</time></trkpt><trkpt lat="40.65298788447158" lon="9.34247334227648"><ele>609.0</ele><time>2026-04-30T15:24:20.994Z</time></trkpt><trkpt lat="40.652905959775985" lon="9.342395497246011"><ele>609.0</ele><time>2026-04-30T15:24:21.994Z</time></trkpt><trkpt lat="40.652846347740734" lon="9.342338838812648"><ele>609.0</ele><time>2026-04-30T15:24:22.994Z</time></trkpt><trkpt lat="40.652781226157906" lon="9.342283970329838"><ele>609.0</ele><time>2026-04-30T15:24:23.994Z</time></trkpt><trkpt lat="40.652716391803814" lon="9.342241877749407"><ele>609.0</ele><time>2026-04-30T15:24:24.994Z</time></trkpt><trkpt lat="40.65265120346085" lon="9.342207215907191"><ele>609.0</ele><time>2026-04-30T15:24:25.994Z</time></trkpt><trkpt lat="40.65257935857222" lon="9.342168848178869"><ele>609.2</ele><time>2026-04-30T15:24:26.994Z</time></trkpt><trkpt lat="40.65250582576473" lon="9.342131014558566"><ele>609.4</ele><time>2026-04-30T15:24:27.994Z</time></trkpt><trkpt lat="40.65242920396239" lon="9.342090171542635"><ele>609.6</ele><time>2026-04-30T15:24:28.994Z</time></trkpt><trkpt lat="40.652343395865515" lon="9.3420420731723"><ele>609.8</ele><time>2026-04-30T15:24:29.994Z</time></trkpt><trkpt lat="40.65225676253192" lon="9.341988217886803"><ele>610.0</ele><time>2026-04-30T15:24:30.994Z</time></trkpt><trkpt lat="40.652159800540126" lon="9.341930423545282"><ele>610.0</ele><time>2026-04-30T15:24:31.994Z</time></trkpt><trkpt lat="40.65205696129834" lon="9.34186828937201"><ele>610.0</ele><time>2026-04-30T15:24:32.994Z</time></trkpt><trkpt lat="40.651947673739265" lon="9.341800763576769"><ele>610.0</ele><time>2026-04-30T15:24:33.994Z</time></trkpt><trkpt lat="40.65183475028447" lon="9.341731555868202"><ele>610.0</ele><time>2026-04-30T15:24:34.994Z</time></trkpt><trkpt lat="40.65171735773044" lon="9.341654684360334"><ele>610.75</ele><time>2026-04-30T15:24:35.994Z</time></trkpt><trkpt lat="40.65160857382557" lon="9.341571191662958"><ele>611.5</ele><time>2026-04-30T15:24:36.994Z</time></trkpt><trkpt lat="40.65150260716406" lon="9.341474109713646"><ele>612.25</ele><time>2026-04-30T15:24:37.994Z</time></trkpt><trkpt lat="40.6514008635171" lon="9.34135818180749"><ele>613.0</ele><time>2026-04-30T15:24:38.994Z</time></trkpt><trkpt lat="40.651308326250536" lon="9.341223441661564"><ele>613.0</ele><time>2026-04-30T15:24:39.994Z</time></trkpt><trkpt lat="40.65121090172573" lon="9.341078296584707"><ele>613.0</ele><time>2026-04-30T15:24:40.994Z</time></trkpt><trkpt lat="40.65112198505938" lon="9.340920819400068"><ele>613.0</ele><time>2026-04-30T15:24:41.994Z</time></trkpt><trkpt lat="40.65101137079416" lon="9.340768527457751"><ele>611.75</ele><time>2026-04-30T15:24:42.994Z</time></trkpt><trkpt lat="40.65089924727439" lon="9.340634343337305"><ele>610.5</ele><time>2026-04-30T15:24:43.994Z</time></trkpt><trkpt lat="40.650791609407264" lon="9.340510629625573"><ele>609.25</ele><time>2026-04-30T15:24:44.994Z</time></trkpt><trkpt lat="40.650695093596276" lon="9.340386262872002"><ele>608.0</ele><time>2026-04-30T15:24:45.994Z</time></trkpt><trkpt lat="40.65062914832378" lon="9.340258833784693"><ele>608.0</ele><time>2026-04-30T15:24:46.994Z</time></trkpt><trkpt lat="40.65058689784614" lon="9.340127713943785"><ele>608.0</ele><time>2026-04-30T15:24:47.994Z</time></trkpt><trkpt lat="40.6505528350739" lon="9.339989164722862"><ele>608.0</ele><time>2026-04-30T15:24:48.994Z</time></trkpt><trkpt lat="40.65052338415112" lon="9.339849088694578"><ele>608.0</ele><time>2026-04-30T15:24:49.994Z</time></trkpt><trkpt lat="40.650496146960684" lon="9.339711417943136"><ele>608.0</ele><time>2026-04-30T15:24:50.994Z</time></trkpt><trkpt lat="40.650048964228674" lon="9.339255424610643"><ele>607.3333333333333</ele><time>2026-04-30T15:24:51.994Z</time></trkpt><trkpt lat="40.649947218953415" lon="9.339055123476001"><ele>606.6666666666666</ele><time>2026-04-30T15:24:52.994Z</time></trkpt><trkpt lat="40.649844205819" lon="9.338855017204821"><ele>606.0</ele><time>2026-04-30T15:24:53.994Z</time></trkpt><trkpt lat="40.64973748091622" lon="9.338649780303658"><ele>607.6666666666666</ele><time>2026-04-30T15:24:54.994Z</time></trkpt><trkpt lat="40.64962196830081" lon="9.338435980484086"><ele>609.3333333333333</ele><time>2026-04-30T15:24:55.994Z</time></trkpt><trkpt lat="40.64949895308594" lon="9.338226110134947"><ele>611.0</ele><time>2026-04-30T15:24:56.994Z</time></trkpt><trkpt lat="40.64936536734731" lon="9.338019405067334"><ele>611.0</ele><time>2026-04-30T15:24:57.994Z</time></trkpt><trkpt lat="40.6492209110573" lon="9.337814342570317"><ele>611.0</ele><time>2026-04-30T15:24:58.994Z</time></trkpt><trkpt lat="40.64906476843379" lon="9.337615049252669"><ele>611.0</ele><time>2026-04-30T15:24:59.994Z</time></trkpt><trkpt lat="40.64890161519109" lon="9.337427165325566"><ele>611.0</ele><time>2026-04-30T15:25:00.994Z</time></trkpt><trkpt lat="40.6487308675241" lon="9.337249827423642"><ele>611.0</ele><time>2026-04-30T15:25:01.994Z</time></trkpt><trkpt lat="40.64855273031486" lon="9.337077011327406"><ele>611.0</ele><time>2026-04-30T15:25:02.994Z</time></trkpt><trkpt lat="40.64837223025864" lon="9.336921822049236"><ele>613.6666666666666</ele><time>2026-04-30T15:25:03.994Z</time></trkpt><trkpt lat="40.64818464430516" lon="9.336774956834054"><ele>616.3333333333334</ele><time>2026-04-30T15:25:04.993Z</time></trkpt><trkpt lat="40.64799324167517" lon="9.336631752286502"><ele>619.0</ele><time>2026-04-30T15:25:05.993Z</time></trkpt><trkpt lat="40.64780283890094" lon="9.33649251903274"><ele>621.3333333333334</ele><time>2026-04-30T15:25:06.993Z</time></trkpt><trkpt lat="40.64761763789207" lon="9.336354228912652"><ele>623.6666666666666</ele><time>2026-04-30T15:25:07.993Z</time></trkpt><trkpt lat="40.64744592427145" lon="9.33621174844407"><ele>626.0</ele><time>2026-04-30T15:25:08.993Z</time></trkpt><trkpt lat="40.6472811150897" lon="9.336046255884867"><ele>626.0</ele><time>2026-04-30T15:25:09.993Z</time></trkpt><trkpt lat="40.64712163034954" lon="9.335892537470547"><ele>626.0</ele><time>2026-04-30T15:25:10.993Z</time></trkpt><trkpt lat="40.646971780154146" lon="9.335714685474906"><ele>626.0</ele><time>2026-04-30T15:25:11.992Z</time></trkpt><trkpt lat="40.646828823709384" lon="9.335527165383692"><ele>626.3333333333333</ele><time>2026-04-30T15:25:12.992Z</time></trkpt><trkpt lat="40.64669353381131" lon="9.335330701286873"><ele>626.6666666666666</ele><time>2026-04-30T15:25:13.993Z</time></trkpt><trkpt lat="40.646587463551896" lon="9.33512061229274"><ele>627.0</ele><time>2026-04-30T15:25:14.992Z</time></trkpt><trkpt lat="40.646472070646595" lon="9.334900429473775"><ele>627.3333333333334</ele><time>2026-04-30T15:25:15.992Z</time></trkpt><trkpt lat="40.64636476839735" lon="9.334673116553391"><ele>627.6666666666667</ele><time>2026-04-30T15:25:16.993Z</time></trkpt><trkpt lat="40.646266302867396" lon="9.334432819872033"><ele>628.0</ele><time>2026-04-30T15:25:17.992Z</time></trkpt><trkpt lat="40.6461810414941" lon="9.334180289499711"><ele>625.3333333333334</ele><time>2026-04-30T15:25:18.992Z</time></trkpt><trkpt lat="40.64612181570519" lon="9.33391142132263"><ele>622.6666666666666</ele><time>2026-04-30T15:25:19.993Z</time></trkpt><trkpt lat="40.646056847206644" lon="9.3336473535404"><ele>620.0</ele><time>2026-04-30T15:25:20.993Z</time></trkpt><trkpt lat="40.645986219189965" lon="9.333379086796924"><ele>620.0</ele><time>2026-04-30T15:25:21.993Z</time></trkpt><trkpt lat="40.64593211931278" lon="9.333100055194397"><ele>620.0</ele><time>2026-04-30T15:25:22.993Z</time></trkpt><trkpt lat="40.64587421536952" lon="9.332816644722698"><ele>620.0</ele><time>2026-04-30T15:25:23.993Z</time></trkpt><trkpt lat="40.64581812011539" lon="9.332543729231546"><ele>622.0</ele><time>2026-04-30T15:25:24.993Z</time></trkpt><trkpt lat="40.645747063268615" lon="9.332275894177812"><ele>624.0</ele><time>2026-04-30T15:25:25.993Z</time></trkpt><trkpt lat="40.64567064217847" lon="9.33200507941319"><ele>626.0</ele><time>2026-04-30T15:25:26.993Z</time></trkpt><trkpt lat="40.645579289530275" lon="9.331736761172237"><ele>628.5</ele><time>2026-04-30T15:25:27.993Z</time></trkpt><trkpt lat="40.64547185837474" lon="9.331470137719434"><ele>631.0</ele><time>2026-04-30T15:25:28.993Z</time></trkpt><trkpt lat="40.64535885466161" lon="9.331218223679839"><ele>632.5</ele><time>2026-04-30T15:25:29.993Z</time></trkpt><trkpt lat="40.64523548025752" lon="9.33097365496072"><ele>634.0</ele><time>2026-04-30T15:25:30.993Z</time></trkpt><trkpt lat="40.64510321861411" lon="9.330730466759437"><ele>635.6666666666667</ele><time>2026-04-30T15:25:31.993Z</time></trkpt><trkpt lat="40.64495959064191" lon="9.330496623895598"><ele>637.3333333333334</ele><time>2026-04-30T15:25:32.993Z</time></trkpt><trkpt lat="40.64481046266388" lon="9.33028331017186"><ele>639.0</ele><time>2026-04-30T15:25:33.993Z</time></trkpt><trkpt lat="40.644665361921575" lon="9.330059253294996"><ele>639.0</ele><time>2026-04-30T15:25:34.993Z</time></trkpt><trkpt lat="40.64449433165906" lon="9.329863800486407"><ele>639.0</ele><time>2026-04-30T15:25:35.993Z</time></trkpt><trkpt lat="40.64432000137263" lon="9.32967440453561"><ele>639.6666666666666</ele><time>2026-04-30T15:25:36.993Z</time></trkpt><trkpt lat="40.644140363186416" lon="9.329496444334914"><ele>640.3333333333333</ele><time>2026-04-30T15:25:37.993Z</time></trkpt><trkpt lat="40.64395580564196" lon="9.329335039086365"><ele>641.0</ele><time>2026-04-30T15:25:38.993Z</time></trkpt><trkpt lat="40.64375864652113" lon="9.329190051005126"><ele>640.3333333333333</ele><time>2026-04-30T15:25:39.993Z</time></trkpt><trkpt lat="40.64356100672181" lon="9.329054683059198"><ele>639.6666666666666</ele><time>2026-04-30T15:25:40.993Z</time></trkpt><trkpt lat="40.64335824179655" lon="9.32892958256244"><ele>639.0</ele><time>2026-04-30T15:25:41.993Z</time></trkpt><trkpt lat="40.64315496076478" lon="9.328813484038065"><ele>641.0</ele><time>2026-04-30T15:25:42.993Z</time></trkpt><trkpt lat="40.642945547741434" lon="9.32871110142329"><ele>643.0</ele><time>2026-04-30T15:25:43.993Z</time></trkpt><trkpt lat="40.642733258922156" lon="9.32862032433866"><ele>645.0</ele><time>2026-04-30T15:25:44.993Z</time></trkpt><trkpt lat="40.642518420710346" lon="9.328539597896022"><ele>647.0</ele><time>2026-04-30T15:25:45.993Z</time></trkpt><trkpt lat="40.6423005874951" lon="9.328462836502895"><ele>649.0</ele><time>2026-04-30T15:25:46.993Z</time></trkpt><trkpt lat="40.642078221434424" lon="9.328385171551993"><ele>651.5</ele><time>2026-04-30T15:25:47.993Z</time></trkpt><trkpt lat="40.64185032420548" lon="9.32832101763497"><ele>654.0</ele><time>2026-04-30T15:25:48.993Z</time></trkpt><trkpt lat="40.64161416835253" lon="9.328246333205476"><ele>654.0</ele><time>2026-04-30T15:25:49.993Z</time></trkpt><trkpt lat="40.641381551638396" lon="9.328172114312682"><ele>654.0</ele><time>2026-04-30T15:25:50.993Z</time></trkpt><trkpt lat="40.64115160172942" lon="9.328094140541605"><ele>657.0</ele><time>2026-04-30T15:25:51.993Z</time></trkpt><trkpt lat="40.640927995391685" lon="9.328022273478384"><ele>660.0</ele><time>2026-04-30T15:25:52.993Z</time></trkpt><trkpt lat="40.640708809470595" lon="9.32794626545174"><ele>660.0</ele><time>2026-04-30T15:25:53.993Z</time></trkpt><trkpt lat="40.64049197908247" lon="9.327870170327117"><ele>660.0</ele><time>2026-04-30T15:25:54.993Z</time></trkpt><trkpt lat="40.64029150951541" lon="9.327779985449412"><ele>660.0</ele><time>2026-04-30T15:25:55.993Z</time></trkpt><trkpt lat="40.64008065555244" lon="9.32768346442763"><ele>660.0</ele><time>2026-04-30T15:25:56.993Z</time></trkpt><trkpt lat="40.63988123556177" lon="9.3275749690595"><ele>660.0</ele><time>2026-04-30T15:25:57.993Z</time></trkpt><trkpt lat="40.639690789196514" lon="9.327460487899618"><ele>660.0</ele><time>2026-04-30T15:25:58.993Z</time></trkpt><trkpt lat="40.639499527725455" lon="9.327328908188186"><ele>659.3333333333334</ele><time>2026-04-30T15:25:59.993Z</time></trkpt><trkpt lat="40.639312514160565" lon="9.327187351739246"><ele>658.6666666666667</ele><time>2026-04-30T15:26:00.993Z</time></trkpt><trkpt lat="40.63914009205879" lon="9.327034275782557"><ele>658.0</ele><time>2026-04-30T15:26:01.993Z</time></trkpt><trkpt lat="40.63897571525256" lon="9.326866186642446"><ele>658.0</ele><time>2026-04-30T15:26:02.993Z</time></trkpt><trkpt lat="40.638820955937234" lon="9.326698759949226"><ele>658.0</ele><time>2026-04-30T15:26:03.993Z</time></trkpt><trkpt lat="40.638680174045575" lon="9.326532739966183"><ele>658.0</ele><time>2026-04-30T15:26:04.993Z</time></trkpt><trkpt lat="40.638541609804435" lon="9.326357682670572"><ele>657.6666666666667</ele><time>2026-04-30T15:26:05.993Z</time></trkpt><trkpt lat="40.638409886632004" lon="9.326166329123696"><ele>657.3333333333334</ele><time>2026-04-30T15:26:06.993Z</time></trkpt><trkpt lat="40.63828215848309" lon="9.325967411211257"><ele>657.0</ele><time>2026-04-30T15:26:07.993Z</time></trkpt><trkpt lat="40.63815425166672" lon="9.32574970964235"><ele>658.0</ele><time>2026-04-30T15:26:08.993Z</time></trkpt><trkpt lat="40.6380314773734" lon="9.325522137023992"><ele>659.0</ele><time>2026-04-30T15:26:09.993Z</time></trkpt><trkpt lat="40.63791284951927" lon="9.325289183474371"><ele>660.0</ele><time>2026-04-30T15:26:10.993Z</time></trkpt><trkpt lat="40.637804851764045" lon="9.32504518272244"><ele>659.3333333333334</ele><time>2026-04-30T15:26:11.993Z</time></trkpt><trkpt lat="40.6376998884181" lon="9.32478061206437"><ele>658.6666666666667</ele><time>2026-04-30T15:26:12.993Z</time></trkpt><trkpt lat="40.63760027983662" lon="9.324523487434497"><ele>658.0</ele><time>2026-04-30T15:26:13.993Z</time></trkpt><trkpt lat="40.63751303944714" lon="9.324252120343818"><ele>658.0</ele><time>2026-04-30T15:26:14.993Z</time></trkpt><trkpt lat="40.637415449710026" lon="9.323998645535672"><ele>658.0</ele><time>2026-04-30T15:26:15.993Z</time></trkpt><trkpt lat="40.63730327588225" lon="9.323747092197017"><ele>658.0</ele><time>2026-04-30T15:26:16.993Z</time></trkpt><trkpt lat="40.63720558192149" lon="9.323484994540475"><ele>658.5</ele><time>2026-04-30T15:26:17.993Z</time></trkpt><trkpt lat="40.637103241047775" lon="9.323222157877618"><ele>659.0</ele><time>2026-04-30T15:26:18.993Z</time></trkpt><trkpt lat="40.636996896637726" lon="9.322956209960791"><ele>657.6666666666666</ele><time>2026-04-30T15:26:19.993Z</time></trkpt><trkpt lat="40.636898299820224" lon="9.322696354808475"><ele>656.3333333333334</ele><time>2026-04-30T15:26:20.993Z</time></trkpt><trkpt lat="40.636799787122754" lon="9.322435152330478"><ele>655.0</ele><time>2026-04-30T15:26:21.993Z</time></trkpt><trkpt lat="40.636705175527496" lon="9.322182231669808"><ele>654.6666666666667</ele><time>2026-04-30T15:26:22.993Z</time></trkpt><trkpt lat="40.636609723601026" lon="9.321929269518087"><ele>654.3333333333334</ele><time>2026-04-30T15:26:23.993Z</time></trkpt><trkpt lat="40.63651505552292" lon="9.321686639226899"><ele>654.0</ele><time>2026-04-30T15:26:24.993Z</time></trkpt><trkpt lat="40.63642943681619" lon="9.321462542731696"><ele>654.0</ele><time>2026-04-30T15:26:25.993Z</time></trkpt><trkpt lat="40.63634996494594" lon="9.321249606844178"><ele>654.0</ele><time>2026-04-30T15:26:26.993Z</time></trkpt><trkpt lat="40.63626684748099" lon="9.321026156319718"><ele>654.0</ele><time>2026-04-30T15:26:27.993Z</time></trkpt><trkpt lat="40.636179606319814" lon="9.320795929494313"><ele>653.3333333333334</ele><time>2026-04-30T15:26:28.993Z</time></trkpt><trkpt lat="40.63608893156804" lon="9.320564942952133"><ele>652.6666666666667</ele><time>2026-04-30T15:26:29.993Z</time></trkpt><trkpt lat="40.63599749042621" lon="9.320327277741937"><ele>652.0</ele><time>2026-04-30T15:26:30.993Z</time></trkpt><trkpt lat="40.635900585457236" lon="9.320080803525535"><ele>652.0</ele><time>2026-04-30T15:26:31.993Z</time></trkpt><trkpt lat="40.635800024072864" lon="9.319831049380943"><ele>652.0</ele><time>2026-04-30T15:26:32.993Z</time></trkpt><trkpt lat="40.635697296299945" lon="9.319577426176636"><ele>652.0</ele><time>2026-04-30T15:26:33.993Z</time></trkpt><trkpt lat="40.63559480019222" lon="9.319317814483476"><ele>650.0</ele><time>2026-04-30T15:26:34.993Z</time></trkpt><trkpt lat="40.635491804162626" lon="9.319052477670432"><ele>648.0</ele><time>2026-04-30T15:26:35.993Z</time></trkpt><trkpt lat="40.635388501561934" lon="9.318785012048322"><ele>648.5</ele><time>2026-04-30T15:26:36.993Z</time></trkpt><trkpt lat="40.635284398513875" lon="9.318519160982007"><ele>649.0</ele><time>2026-04-30T15:26:37.993Z</time></trkpt><trkpt lat="40.63517860246362" lon="9.318251716291282"><ele>648.0</ele><time>2026-04-30T15:26:38.993Z</time></trkpt><trkpt lat="40.63507219690515" lon="9.317982911372212"><ele>647.0</ele><time>2026-04-30T15:26:39.993Z</time></trkpt><trkpt lat="40.63496396227537" lon="9.317716191758636"><ele>647.0</ele><time>2026-04-30T15:26:40.993Z</time></trkpt><trkpt lat="40.634854311921835" lon="9.317442020581797"><ele>647.0</ele><time>2026-04-30T15:26:41.993Z</time></trkpt><trkpt lat="40.634760966354605" lon="9.317156300601447"><ele>646.0</ele><time>2026-04-30T15:26:42.993Z</time></trkpt><trkpt lat="40.63463787991657" lon="9.316893352189375"><ele>645.0</ele><time>2026-04-30T15:26:43.993Z</time></trkpt><trkpt lat="40.634529948944206" lon="9.316622177248219"><ele>644.5</ele><time>2026-04-30T15:26:44.993Z</time></trkpt><trkpt lat="40.63442272140683" lon="9.31635065927495"><ele>644.0</ele><time>2026-04-30T15:26:45.993Z</time></trkpt><trkpt lat="40.634337866445115" lon="9.316060230854754"><ele>644.0</ele><time>2026-04-30T15:26:46.993Z</time></trkpt><trkpt lat="40.634232539791405" lon="9.315788464093288"><ele>644.0</ele><time>2026-04-30T15:26:47.993Z</time></trkpt><trkpt lat="40.6341242611774" lon="9.315509168454934"><ele>645.0</ele><time>2026-04-30T15:26:48.993Z</time></trkpt><trkpt lat="40.634004696422835" lon="9.315241851912148"><ele>646.0</ele><time>2026-04-30T15:26:49.993Z</time></trkpt><trkpt lat="40.633900843396276" lon="9.31496066241891"><ele>646.5</ele><time>2026-04-30T15:26:50.993Z</time></trkpt><trkpt lat="40.633792746656184" lon="9.314676275292689"><ele>647.0</ele><time>2026-04-30T15:26:51.993Z</time></trkpt><trkpt lat="40.633680471433955" lon="9.31438533221734"><ele>647.5</ele><time>2026-04-30T15:26:52.993Z</time></trkpt><trkpt lat="40.63356972982561" lon="9.314093787719628"><ele>648.0</ele><time>2026-04-30T15:26:53.993Z</time></trkpt><trkpt lat="40.6334571599128" lon="9.313793583491366"><ele>647.0</ele><time>2026-04-30T15:26:54.993Z</time></trkpt><trkpt lat="40.6333400452987" lon="9.313484632104718"><ele>646.0</ele><time>2026-04-30T15:26:55.993Z</time></trkpt><trkpt lat="40.63322195156038" lon="9.31317766292558"><ele>645.5</ele><time>2026-04-30T15:26:56.993Z</time></trkpt><trkpt lat="40.63310222214321" lon="9.312869583194859"><ele>645.0</ele><time>2026-04-30T15:26:57.993Z</time></trkpt><trkpt lat="40.63298121896442" lon="9.3125597247662"><ele>645.0</ele><time>2026-04-30T15:26:58.993Z</time></trkpt><trkpt lat="40.63285953050332" lon="9.312246237737838"><ele>645.0</ele><time>2026-04-30T15:26:59.993Z</time></trkpt><trkpt lat="40.63273843636294" lon="9.311935765819651"><ele>644.5</ele><time>2026-04-30T15:27:00.993Z</time></trkpt><trkpt lat="40.632614292621966" lon="9.311622415120574"><ele>644.0</ele><time>2026-04-30T15:27:01.993Z</time></trkpt><trkpt lat="40.63249186337606" lon="9.3113079209479"><ele>644.0</ele><time>2026-04-30T15:27:02.993Z</time></trkpt><trkpt lat="40.6323706708154" lon="9.310996129532327"><ele>644.0</ele><time>2026-04-30T15:27:03.993Z</time></trkpt><trkpt lat="40.632249433829216" lon="9.31068110450814"><ele>642.5</ele><time>2026-04-30T15:27:04.993Z</time></trkpt><trkpt lat="40.632127876899844" lon="9.310366121089217"><ele>641.0</ele><time>2026-04-30T15:27:05.993Z</time></trkpt><trkpt lat="40.632005412360776" lon="9.310052330818987"><ele>645.0</ele><time>2026-04-30T15:27:06.993Z</time></trkpt><trkpt lat="40.631881404332" lon="9.309739048520724"><ele>649.0</ele><time>2026-04-30T15:27:07.993Z</time></trkpt><trkpt lat="40.63176086631271" lon="9.309426462070201"><ele>649.0</ele><time>2026-04-30T15:27:08.993Z</time></trkpt><trkpt lat="40.63163611413443" lon="9.309110122556826"><ele>649.0</ele><time>2026-04-30T15:27:09.993Z</time></trkpt><trkpt lat="40.63151404467478" lon="9.30879624688795"><ele>650.0</ele><time>2026-04-30T15:27:10.992Z</time></trkpt><trkpt lat="40.631393942201534" lon="9.308484589499413"><ele>651.0</ele><time>2026-04-30T15:27:11.992Z</time></trkpt><trkpt lat="40.63127214119513" lon="9.3081724015721"><ele>651.5</ele><time>2026-04-30T15:27:12.992Z</time></trkpt><trkpt lat="40.631152065200226" lon="9.30786022329696"><ele>652.0</ele><time>2026-04-30T15:27:13.992Z</time></trkpt><trkpt lat="40.631025615002514" lon="9.307547856231537"><ele>650.5</ele><time>2026-04-30T15:27:14.993Z</time></trkpt><trkpt lat="40.63089987750443" lon="9.307235112210813"><ele>649.0</ele><time>2026-04-30T15:27:15.993Z</time></trkpt><trkpt lat="40.63077537052857" lon="9.306921899985968"><ele>649.0</ele><time>2026-04-30T15:27:16.992Z</time></trkpt><trkpt lat="40.63065926241736" lon="9.306612340828032"><ele>649.0</ele><time>2026-04-30T15:27:17.992Z</time></trkpt><trkpt lat="40.63053884872079" lon="9.30630107751079"><ele>649.0</ele><time>2026-04-30T15:27:18.992Z</time></trkpt><trkpt lat="40.63042241406936" lon="9.305984519458596"><ele>649.0</ele><time>2026-04-30T15:27:19.992Z</time></trkpt><trkpt lat="40.63030235802986" lon="9.305681604468417"><ele>648.5</ele><time>2026-04-30T15:27:20.992Z</time></trkpt><trkpt lat="40.63017967276533" lon="9.305378922475569"><ele>648.0</ele><time>2026-04-30T15:27:21.992Z</time></trkpt><trkpt lat="40.630059581000175" lon="9.30507903405824"><ele>648.0</ele><time>2026-04-30T15:27:22.992Z</time></trkpt><trkpt lat="40.62993942934577" lon="9.30478273909904"><ele>648.0</ele><time>2026-04-30T15:27:23.992Z</time></trkpt><trkpt lat="40.629818661318005" lon="9.3044833601815"><ele>646.5</ele><time>2026-04-30T15:27:24.992Z</time></trkpt><trkpt lat="40.62969519207595" lon="9.304191724713226"><ele>645.0</ele><time>2026-04-30T15:27:25.992Z</time></trkpt><trkpt lat="40.62956429964445" lon="9.303906491060687"><ele>644.5</ele><time>2026-04-30T15:27:26.992Z</time></trkpt><trkpt lat="40.62943234818045" lon="9.303624060476988"><ele>644.0</ele><time>2026-04-30T15:27:27.992Z</time></trkpt><trkpt lat="40.62929511081897" lon="9.303339730360166"><ele>643.0</ele><time>2026-04-30T15:27:28.992Z</time></trkpt><trkpt lat="40.629155782764805" lon="9.303052192709552"><ele>642.0</ele><time>2026-04-30T15:27:29.992Z</time></trkpt><trkpt lat="40.62901009000616" lon="9.302762394792179"><ele>642.0</ele><time>2026-04-30T15:27:30.992Z</time></trkpt><trkpt lat="40.62886069700115" lon="9.302475454755962"><ele>642.0</ele><time>2026-04-30T15:27:31.992Z</time></trkpt><trkpt lat="40.62870944885237" lon="9.302186777196411"><ele>642.0</ele><time>2026-04-30T15:27:32.992Z</time></trkpt><trkpt lat="40.6285527154986" lon="9.301906857337265"><ele>642.0</ele><time>2026-04-30T15:27:33.992Z</time></trkpt><trkpt lat="40.628391619324546" lon="9.301626651257315"><ele>642.5</ele><time>2026-04-30T15:27:34.992Z</time></trkpt><trkpt lat="40.62822962579881" lon="9.301349566218136"><ele>643.0</ele><time>2026-04-30T15:27:35.992Z</time></trkpt><trkpt lat="40.62806029160675" lon="9.301072106638781"><ele>643.0</ele><time>2026-04-30T15:27:36.992Z</time></trkpt><trkpt lat="40.62788806098946" lon="9.300797212665383"><ele>643.0</ele><time>2026-04-30T15:27:37.992Z</time></trkpt><trkpt lat="40.6277133446922" lon="9.300527750263154"><ele>644.5</ele><time>2026-04-30T15:27:38.992Z</time></trkpt><trkpt lat="40.62753377683483" lon="9.300263585138314"><ele>646.0</ele><time>2026-04-30T15:27:39.992Z</time></trkpt><trkpt lat="40.627351299121806" lon="9.300001059212503"><ele>646.0</ele><time>2026-04-30T15:27:40.992Z</time></trkpt><trkpt lat="40.6271692234657" lon="9.299741683299574"><ele>646.0</ele><time>2026-04-30T15:27:41.992Z</time></trkpt><trkpt lat="40.62698564923155" lon="9.299485733302287"><ele>646.5</ele><time>2026-04-30T15:27:42.992Z</time></trkpt><trkpt lat="40.62680003981586" lon="9.299228998537593"><ele>647.0</ele><time>2026-04-30T15:27:43.992Z</time></trkpt><trkpt lat="40.62661777311172" lon="9.298968985099162"><ele>647.0</ele><time>2026-04-30T15:27:44.992Z</time></trkpt><trkpt lat="40.626437054040615" lon="9.298711359423306"><ele>647.0</ele><time>2026-04-30T15:27:45.992Z</time></trkpt><trkpt lat="40.6262583776394" lon="9.298455984863335"><ele>647.5</ele><time>2026-04-30T15:27:46.992Z</time></trkpt><trkpt lat="40.62608448631409" lon="9.298203885746416"><ele>648.0</ele><time>2026-04-30T15:27:47.992Z</time></trkpt><trkpt lat="40.62591347149229" lon="9.297948441234205"><ele>647.0</ele><time>2026-04-30T15:27:48.992Z</time></trkpt><trkpt lat="40.62574707712274" lon="9.2976937220016"><ele>646.0</ele><time>2026-04-30T15:27:49.992Z</time></trkpt><trkpt lat="40.62558528800719" lon="9.297432981422716"><ele>645.5</ele><time>2026-04-30T15:27:50.992Z</time></trkpt><trkpt lat="40.62542043195671" lon="9.297165166437672"><ele>645.0</ele><time>2026-04-30T15:27:51.992Z</time></trkpt><trkpt lat="40.62525612769309" lon="9.296894590724953"><ele>644.5</ele><time>2026-04-30T15:27:52.992Z</time></trkpt><trkpt lat="40.625091198895305" lon="9.29662127116282"><ele>644.0</ele><time>2026-04-30T15:27:53.992Z</time></trkpt><trkpt lat="40.624926207261474" lon="9.296341728173404"><ele>644.0</ele><time>2026-04-30T15:27:54.992Z</time></trkpt><trkpt lat="40.62476288234113" lon="9.296063793183007"><ele>644.0</ele><time>2026-04-30T15:27:55.992Z</time></trkpt><trkpt lat="40.62460477088067" lon="9.295789244783448"><ele>642.0</ele><time>2026-04-30T15:27:56.992Z</time></trkpt><trkpt lat="40.62444504955281" lon="9.29551738223844"><ele>640.0</ele><time>2026-04-30T15:27:57.992Z</time></trkpt><trkpt lat="40.62428316087848" lon="9.295243152811377"><ele>640.0</ele><time>2026-04-30T15:27:58.992Z</time></trkpt><trkpt lat="40.624121534976666" lon="9.294965614369609"><ele>640.0</ele><time>2026-04-30T15:27:59.992Z</time></trkpt><trkpt lat="40.62395700027545" lon="9.294687044764066"><ele>639.5</ele><time>2026-04-30T15:28:00.992Z</time></trkpt><trkpt lat="40.62379426069219" lon="9.2944087266559"><ele>639.0</ele><time>2026-04-30T15:28:01.992Z</time></trkpt><trkpt lat="40.62362949856495" lon="9.294127658152094"><ele>637.5</ele><time>2026-04-30T15:28:02.992Z</time></trkpt><trkpt lat="40.62346364842171" lon="9.29384706104343"><ele>636.0</ele><time>2026-04-30T15:28:03.992Z</time></trkpt><trkpt lat="40.62329581449951" lon="9.293565266787175"><ele>636.0</ele><time>2026-04-30T15:28:04.992Z</time></trkpt><trkpt lat="40.62312744480299" lon="9.293283371463673"><ele>636.0</ele><time>2026-04-30T15:28:05.992Z</time></trkpt><trkpt lat="40.62296025422457" lon="9.293000081902361"><ele>634.5</ele><time>2026-04-30T15:28:06.992Z</time></trkpt><trkpt lat="40.622792326380605" lon="9.292721867916736"><ele>633.0</ele><time>2026-04-30T15:28:07.992Z</time></trkpt><trkpt lat="40.62262662380925" lon="9.2924512508836"><ele>633.5</ele><time>2026-04-30T15:28:08.992Z</time></trkpt><trkpt lat="40.62246383486381" lon="9.292191972678724"><ele>634.0</ele><time>2026-04-30T15:28:09.992Z</time></trkpt><trkpt lat="40.62230241850333" lon="9.291939187659938"><ele>634.0</ele><time>2026-04-30T15:28:10.992Z</time></trkpt><trkpt lat="40.622137567903074" lon="9.291686287435864"><ele>634.0</ele><time>2026-04-30T15:28:11.992Z</time></trkpt><trkpt lat="40.621971386458526" lon="9.29143899312213"><ele>633.5</ele><time>2026-04-30T15:28:12.992Z</time></trkpt><trkpt lat="40.62180055592647" lon="9.291193692225526"><ele>633.0</ele><time>2026-04-30T15:28:13.992Z</time></trkpt><trkpt lat="40.62162608551567" lon="9.290948872010599"><ele>633.0</ele><time>2026-04-30T15:28:14.992Z</time></trkpt><trkpt lat="40.62144951246029" lon="9.290704318304403"><ele>633.0</ele><time>2026-04-30T15:28:15.992Z</time></trkpt><trkpt lat="40.62126491931282" lon="9.290462204101084"><ele>632.5</ele><time>2026-04-30T15:28:16.992Z</time></trkpt><trkpt lat="40.62108114026697" lon="9.290224022249317"><ele>632.0</ele><time>2026-04-30T15:28:17.992Z</time></trkpt><trkpt lat="40.620896658259745" lon="9.2899901320279"><ele>632.0</ele><time>2026-04-30T15:28:18.992Z</time></trkpt><trkpt lat="40.62070811259535" lon="9.2897601721697"><ele>632.0</ele><time>2026-04-30T15:28:19.992Z</time></trkpt><trkpt lat="40.62051467463464" lon="9.289531506600328"><ele>631.5</ele><time>2026-04-30T15:28:20.992Z</time></trkpt><trkpt lat="40.62031860137728" lon="9.289304644674026"><ele>631.0</ele><time>2026-04-30T15:28:21.992Z</time></trkpt><trkpt lat="40.62012392214852" lon="9.28908187000859"><ele>631.0</ele><time>2026-04-30T15:28:22.992Z</time></trkpt><trkpt lat="40.61992697742967" lon="9.28886075768869"><ele>631.0</ele><time>2026-04-30T15:28:23.992Z</time></trkpt><trkpt lat="40.6197275074098" lon="9.288637068420348"><ele>631.0</ele><time>2026-04-30T15:28:24.992Z</time></trkpt><trkpt lat="40.61952773551159" lon="9.288413385874001"><ele>631.0</ele><time>2026-04-30T15:28:25.992Z</time></trkpt><trkpt lat="40.6193274807028" lon="9.28819026100527"><ele>630.5</ele><time>2026-04-30T15:28:26.992Z</time></trkpt><trkpt lat="40.61912826112342" lon="9.287964574497828"><ele>630.0</ele><time>2026-04-30T15:28:27.992Z</time></trkpt><trkpt lat="40.618929386904306" lon="9.287740317290544"><ele>630.0</ele><time>2026-04-30T15:28:28.992Z</time></trkpt><trkpt lat="40.618730440729465" lon="9.287517914074737"><ele>630.0</ele><time>2026-04-30T15:28:29.992Z</time></trkpt><trkpt lat="40.618531540425096" lon="9.287299133266428"><ele>630.5</ele><time>2026-04-30T15:28:30.993Z</time></trkpt><trkpt lat="40.618332958958455" lon="9.287080377352257"><ele>631.0</ele><time>2026-04-30T15:28:31.993Z</time></trkpt><trkpt lat="40.61813317519257" lon="9.286859117328286"><ele>631.0</ele><time>2026-04-30T15:28:32.993Z</time></trkpt><trkpt lat="40.617938147690914" lon="9.286638373250417"><ele>631.0</ele><time>2026-04-30T15:28:33.993Z</time></trkpt><trkpt lat="40.61775121510122" lon="9.28642172038606"><ele>630.5</ele><time>2026-04-30T15:28:34.993Z</time></trkpt><trkpt lat="40.617563278544075" lon="9.286211716201315"><ele>630.0</ele><time>2026-04-30T15:28:35.993Z</time></trkpt><trkpt lat="40.61737565493027" lon="9.286004837732"><ele>630.0</ele><time>2026-04-30T15:28:36.993Z</time></trkpt><trkpt lat="40.61718828792552" lon="9.285796032624908"><ele>630.0</ele><time>2026-04-30T15:28:37.993Z</time></trkpt><trkpt lat="40.6170071955831" lon="9.285588057028434"><ele>631.0</ele><time>2026-04-30T15:28:38.993Z</time></trkpt><trkpt lat="40.616821454909974" lon="9.285377227854003"><ele>632.0</ele><time>2026-04-30T15:28:39.993Z</time></trkpt><trkpt lat="40.61663740076302" lon="9.28516867182582"><ele>632.0</ele><time>2026-04-30T15:28:40.993Z</time></trkpt><trkpt lat="40.61642375998732" lon="9.284958777002275"><ele>632.0</ele><time>2026-04-30T15:28:41.993Z</time></trkpt><trkpt lat="40.61619600739292" lon="9.284684895237923"><ele>632.6666666666666</ele><time>2026-04-30T15:28:42.993Z</time></trkpt><trkpt lat="40.615937982403516" lon="9.28439752841079"><ele>633.3333333333334</ele><time>2026-04-30T15:28:43.993Z</time></trkpt><trkpt lat="40.61587573461941" lon="9.284320036194604"><ele>634.0</ele><time>2026-04-30T15:28:44.993Z</time></trkpt><trkpt lat="40.61568200773739" lon="9.28410451209874"><ele>633.0</ele><time>2026-04-30T15:28:45.993Z</time></trkpt><trkpt lat="40.615490209403916" lon="9.283891504900108"><ele>632.0</ele><time>2026-04-30T15:28:46.993Z</time></trkpt><trkpt lat="40.615296264580685" lon="9.283675025914736"><ele>632.0</ele><time>2026-04-30T15:28:47.993Z</time></trkpt><trkpt lat="40.61510272848147" lon="9.283458031649293"><ele>632.0</ele><time>2026-04-30T15:28:48.993Z</time></trkpt><trkpt lat="40.614911031288834" lon="9.283240653663167"><ele>631.0</ele><time>2026-04-30T15:28:49.993Z</time></trkpt><trkpt lat="40.61471725310045" lon="9.283029561839156"><ele>630.0</ele><time>2026-04-30T15:28:50.993Z</time></trkpt><trkpt lat="40.61452992078757" lon="9.282815175089842"><ele>629.5</ele><time>2026-04-30T15:28:51.993Z</time></trkpt><trkpt lat="40.61434325445709" lon="9.28260374396316"><ele>629.0</ele><time>2026-04-30T15:28:52.993Z</time></trkpt><trkpt lat="40.61415381050368" lon="9.2823969740599"><ele>627.0</ele><time>2026-04-30T15:28:53.993Z</time></trkpt><trkpt lat="40.613970077347616" lon="9.282194212293378"><ele>625.0</ele><time>2026-04-30T15:28:54.993Z</time></trkpt><trkpt lat="40.613785891434006" lon="9.281991250409709"><ele>624.0</ele><time>2026-04-30T15:28:55.993Z</time></trkpt><trkpt lat="40.613603085647405" lon="9.281788241900061"><ele>623.0</ele><time>2026-04-30T15:28:56.993Z</time></trkpt><trkpt lat="40.61342197141894" lon="9.281583087966876"><ele>622.0</ele><time>2026-04-30T15:28:57.993Z</time></trkpt><trkpt lat="40.61324218709124" lon="9.281379811304465"><ele>621.0</ele><time>2026-04-30T15:28:58.993Z</time></trkpt><trkpt lat="40.61305946655611" lon="9.28117364213424"><ele>621.0</ele><time>2026-04-30T15:28:59.993Z</time></trkpt><trkpt lat="40.61287793951879" lon="9.280969145912545"><ele>621.0</ele><time>2026-04-30T15:29:00.993Z</time></trkpt><trkpt lat="40.61269554035129" lon="9.280765294879505"><ele>620.5</ele><time>2026-04-30T15:29:01.993Z</time></trkpt><trkpt lat="40.61251426547898" lon="9.280564109821162"><ele>620.0</ele><time>2026-04-30T15:29:02.993Z</time></trkpt><trkpt lat="40.61233084844677" lon="9.280359286094566"><ele>620.0</ele><time>2026-04-30T15:29:03.993Z</time></trkpt><trkpt lat="40.61214832474698" lon="9.280153337903887"><ele>620.0</ele><time>2026-04-30T15:29:04.993Z</time></trkpt><trkpt lat="40.61196296348445" lon="9.279943484015432"><ele>622.0</ele><time>2026-04-30T15:29:05.993Z</time></trkpt><trkpt lat="40.61177479412729" lon="9.279732924297614"><ele>624.0</ele><time>2026-04-30T15:29:06.993Z</time></trkpt><trkpt lat="40.61158819729878" lon="9.27952440911673"><ele>624.0</ele><time>2026-04-30T15:29:07.993Z</time></trkpt><trkpt lat="40.61140142480805" lon="9.279316446705957"><ele>624.0</ele><time>2026-04-30T15:29:08.993Z</time></trkpt><trkpt lat="40.611211150286344" lon="9.279104780574974"><ele>623.0</ele><time>2026-04-30T15:29:09.993Z</time></trkpt><trkpt lat="40.611019258801385" lon="9.278891355703454"><ele>622.0</ele><time>2026-04-30T15:29:10.993Z</time></trkpt><trkpt lat="40.610828727479046" lon="9.278674655257724"><ele>622.0</ele><time>2026-04-30T15:29:11.993Z</time></trkpt><trkpt lat="40.61063517161082" lon="9.278458937850417"><ele>622.0</ele><time>2026-04-30T15:29:12.993Z</time></trkpt><trkpt lat="40.6104437536811" lon="9.278245341299325"><ele>621.5</ele><time>2026-04-30T15:29:13.993Z</time></trkpt><trkpt lat="40.61025091741233" lon="9.278030071030834"><ele>621.0</ele><time>2026-04-30T15:29:14.993Z</time></trkpt><trkpt lat="40.610056737853995" lon="9.277812447007259"><ele>621.0</ele><time>2026-04-30T15:29:15.993Z</time></trkpt><trkpt lat="40.60985797233128" lon="9.277592985430163"><ele>621.0</ele><time>2026-04-30T15:29:16.992Z</time></trkpt><trkpt lat="40.60966085896545" lon="9.277372193401868"><ele>621.0</ele><time>2026-04-30T15:29:17.992Z</time></trkpt><trkpt lat="40.609462062335936" lon="9.277151024621986"><ele>621.0</ele><time>2026-04-30T15:29:18.992Z</time></trkpt><trkpt lat="40.60926390897371" lon="9.27693241993974"><ele>621.0</ele><time>2026-04-30T15:29:19.992Z</time></trkpt><trkpt lat="40.6090657147739" lon="9.27671331223376"><ele>621.0</ele><time>2026-04-30T15:29:20.992Z</time></trkpt><trkpt lat="40.60886774239594" lon="9.276489637667416"><ele>620.5</ele><time>2026-04-30T15:29:21.992Z</time></trkpt><trkpt lat="40.608668421716644" lon="9.276266500677412"><ele>620.0</ele><time>2026-04-30T15:29:22.992Z</time></trkpt><trkpt lat="40.60847163020971" lon="9.276047491594285"><ele>620.0</ele><time>2026-04-30T15:29:23.992Z</time></trkpt><trkpt lat="40.60827509858119" lon="9.275828790406385"><ele>620.0</ele><time>2026-04-30T15:29:24.992Z</time></trkpt><trkpt lat="40.60807789977223" lon="9.275613116262788"><ele>619.5</ele><time>2026-04-30T15:29:25.992Z</time></trkpt><trkpt lat="40.60788433356534" lon="9.275396228081876"><ele>619.0</ele><time>2026-04-30T15:29:26.992Z</time></trkpt><trkpt lat="40.60769228573108" lon="9.275182159751644"><ele>619.0</ele><time>2026-04-30T15:29:27.992Z</time></trkpt><trkpt lat="40.60750119389477" lon="9.274966386383461"><ele>619.0</ele><time>2026-04-30T15:29:28.992Z</time></trkpt><trkpt lat="40.607312876462935" lon="9.274752233435343"><ele>619.0</ele><time>2026-04-30T15:29:29.992Z</time></trkpt><trkpt lat="40.60712052559739" lon="9.27453688041156"><ele>619.0</ele><time>2026-04-30T15:29:30.992Z</time></trkpt><trkpt lat="40.60692227598929" lon="9.27432053883598"><ele>619.0</ele><time>2026-04-30T15:29:31.992Z</time></trkpt><trkpt lat="40.60673147024435" lon="9.274105941919853"><ele>619.0</ele><time>2026-04-30T15:29:32.992Z</time></trkpt><trkpt lat="40.60654067232763" lon="9.273897704442096"><ele>618.6666666666667</ele><time>2026-04-30T15:29:33.992Z</time></trkpt><trkpt lat="40.606373568397345" lon="9.27371674221634"><ele>618.3333333333334</ele><time>2026-04-30T15:29:34.992Z</time></trkpt><trkpt lat="40.606221905134475" lon="9.273548875763547"><ele>618.0</ele><time>2026-04-30T15:29:35.992Z</time></trkpt><trkpt lat="40.606075290027235" lon="9.273383933958998"><ele>617.6666666666666</ele><time>2026-04-30T15:29:36.992Z</time></trkpt><trkpt lat="40.605931737307806" lon="9.273219640782301"><ele>617.3333333333333</ele><time>2026-04-30T15:29:37.992Z</time></trkpt><trkpt lat="40.60579006711501" lon="9.273057570771066"><ele>617.0</ele><time>2026-04-30T15:29:38.992Z</time></trkpt><trkpt lat="40.60564609621086" lon="9.272892379424245"><ele>617.0</ele><time>2026-04-30T15:29:39.992Z</time></trkpt><trkpt lat="40.605497423206806" lon="9.272729605976227"><ele>617.0</ele><time>2026-04-30T15:29:40.992Z</time></trkpt><trkpt lat="40.60535796135606" lon="9.272574378588823"><ele>617.0</ele><time>2026-04-30T15:29:41.992Z</time></trkpt><trkpt lat="40.605218075193264" lon="9.27241130347909"><ele>616.6666666666666</ele><time>2026-04-30T15:29:42.992Z</time></trkpt><trkpt lat="40.6050819102361" lon="9.27224199099364"><ele>616.3333333333334</ele><time>2026-04-30T15:29:43.992Z</time></trkpt><trkpt lat="40.604946357710254" lon="9.272068454508135"><ele>616.0</ele><time>2026-04-30T15:29:44.992Z</time></trkpt><trkpt lat="40.60481014367644" lon="9.271898180149822"><ele>616.0</ele><time>2026-04-30T15:29:45.992Z</time></trkpt><trkpt lat="40.60467218182438" lon="9.271723406072509"><ele>616.0</ele><time>2026-04-30T15:29:46.992Z</time></trkpt><trkpt lat="40.60453176717507" lon="9.27154250637401"><ele>616.0</ele><time>2026-04-30T15:29:47.992Z</time></trkpt><trkpt lat="40.60439921236923" lon="9.271360646393955"><ele>616.6666666666667</ele><time>2026-04-30T15:29:48.993Z</time></trkpt><trkpt lat="40.6042622811567" lon="9.271176327092482"><ele>617.3333333333334</ele><time>2026-04-30T15:29:49.993Z</time></trkpt><trkpt lat="40.60412415811647" lon="9.27099400049442"><ele>618.0</ele><time>2026-04-30T15:29:50.993Z</time></trkpt><trkpt lat="40.603982612589846" lon="9.270806523269822"><ele>618.0</ele><time>2026-04-30T15:29:51.993Z</time></trkpt><trkpt lat="40.60383882152072" lon="9.270613744678695"><ele>618.0</ele><time>2026-04-30T15:29:52.993Z</time></trkpt><trkpt lat="40.60368788176578" lon="9.270411697634946"><ele>618.0</ele><time>2026-04-30T15:29:53.993Z</time></trkpt><trkpt lat="40.6035389014095" lon="9.270207201096163"><ele>617.3333333333334</ele><time>2026-04-30T15:29:54.993Z</time></trkpt><trkpt lat="40.60338105267229" lon="9.269995202344875"><ele>616.6666666666667</ele><time>2026-04-30T15:29:55.993Z</time></trkpt><trkpt lat="40.60322542919861" lon="9.269783350746504"><ele>616.0</ele><time>2026-04-30T15:29:56.993Z</time></trkpt><trkpt lat="40.603065906224195" lon="9.269567327115189"><ele>615.5</ele><time>2026-04-30T15:29:57.993Z</time></trkpt><trkpt lat="40.6029025971102" lon="9.269351288733782"><ele>615.0</ele><time>2026-04-30T15:29:58.993Z</time></trkpt><trkpt lat="40.60273998155738" lon="9.269133036487371"><ele>614.5</ele><time>2026-04-30T15:29:59.993Z</time></trkpt><trkpt lat="40.60257551970559" lon="9.26891586310104"><ele>614.0</ele><time>2026-04-30T15:30:00.993Z</time></trkpt><trkpt lat="40.60241231996844" lon="9.26869763281457"><ele>614.0</ele><time>2026-04-30T15:30:01.993Z</time></trkpt><trkpt lat="40.60224599599913" lon="9.268475329688231"><ele>614.0</ele><time>2026-04-30T15:30:02.993Z</time></trkpt><trkpt lat="40.60208141527864" lon="9.268256055946"><ele>614.0</ele><time>2026-04-30T15:30:03.993Z</time></trkpt><trkpt lat="40.60191773163809" lon="9.26803754913478"><ele>614.0</ele><time>2026-04-30T15:30:04.993Z</time></trkpt><trkpt lat="40.60175103730929" lon="9.267814833637152"><ele>614.0</ele><time>2026-04-30T15:30:05.993Z</time></trkpt><trkpt lat="40.60158380535548" lon="9.267590749389134"><ele>614.0</ele><time>2026-04-30T15:30:06.993Z</time></trkpt><trkpt lat="40.60141820037149" lon="9.267369497952176"><ele>613.5</ele><time>2026-04-30T15:30:07.993Z</time></trkpt><trkpt lat="40.60125032909416" lon="9.26714556319935"><ele>613.0</ele><time>2026-04-30T15:30:08.993Z</time></trkpt><trkpt lat="40.601081957435945" lon="9.266918631167602"><ele>612.0</ele><time>2026-04-30T15:30:09.993Z</time></trkpt><trkpt lat="40.60091596862628" lon="9.266696887219199"><ele>611.0</ele><time>2026-04-30T15:30:10.993Z</time></trkpt><trkpt lat="40.6007494112383" lon="9.266472479711283"><ele>610.5</ele><time>2026-04-30T15:30:11.993Z</time></trkpt><trkpt lat="40.600581456307346" lon="9.266247570918885"><ele>610.0</ele><time>2026-04-30T15:30:12.993Z</time></trkpt><trkpt lat="40.60041466969875" lon="9.266022349958648"><ele>610.5</ele><time>2026-04-30T15:30:13.993Z</time></trkpt><trkpt lat="40.60022679770578" lon="9.265775785846452"><ele>611.0</ele><time>2026-04-30T15:30:14.993Z</time></trkpt><trkpt lat="40.60000259246289" lon="9.265480214142121"><ele>611.0</ele><time>2026-04-30T15:30:15.993Z</time></trkpt><trkpt lat="40.599780877480725" lon="9.265181123432132"><ele>611.0</ele><time>2026-04-30T15:30:16.993Z</time></trkpt><trkpt lat="40.5997302274612" lon="9.265103020571843"><ele>611.0</ele><time>2026-04-30T15:30:17.993Z</time></trkpt><trkpt lat="40.599556497266136" lon="9.264871651583418"><ele>612.0</ele><time>2026-04-30T15:30:18.993Z</time></trkpt><trkpt lat="40.59938284841084" lon="9.264637184583627"><ele>613.0</ele><time>2026-04-30T15:30:19.993Z</time></trkpt><trkpt lat="40.599201667535795" lon="9.264400790875554"><ele>613.0</ele><time>2026-04-30T15:30:20.993Z</time></trkpt><trkpt lat="40.59902156721046" lon="9.264159693782055"><ele>613.0</ele><time>2026-04-30T15:30:21.993Z</time></trkpt><trkpt lat="40.59884174086512" lon="9.263920595223594"><ele>613.0</ele><time>2026-04-30T15:30:22.993Z</time></trkpt><trkpt lat="40.59866052522597" lon="9.263681080108368"><ele>613.0</ele><time>2026-04-30T15:30:23.993Z</time></trkpt><trkpt lat="40.598480789422" lon="9.26343781905141"><ele>613.0</ele><time>2026-04-30T15:30:24.993Z</time></trkpt><trkpt lat="40.59830202715305" lon="9.263193373618183"><ele>613.0</ele><time>2026-04-30T15:30:25.993Z</time></trkpt><trkpt lat="40.59812080504959" lon="9.262953956199539"><ele>612.5</ele><time>2026-04-30T15:30:26.993Z</time></trkpt><trkpt lat="40.597939459031295" lon="9.262711776303295"><ele>612.0</ele><time>2026-04-30T15:30:27.993Z</time></trkpt><trkpt lat="40.59776044203726" lon="9.262470999363128"><ele>611.5</ele><time>2026-04-30T15:30:28.993Z</time></trkpt><trkpt lat="40.59757971661619" lon="9.262229068215978"><ele>611.0</ele><time>2026-04-30T15:30:29.993Z</time></trkpt><trkpt lat="40.597399468126476" lon="9.261988609781342"><ele>611.0</ele><time>2026-04-30T15:30:30.993Z</time></trkpt><trkpt lat="40.59721718961218" lon="9.2617538055306"><ele>611.0</ele><time>2026-04-30T15:30:31.993Z</time></trkpt><trkpt lat="40.597040059855516" lon="9.261516105221023"><ele>611.5</ele><time>2026-04-30T15:30:32.993Z</time></trkpt><trkpt lat="40.59686299815403" lon="9.261277765112922"><ele>612.0</ele><time>2026-04-30T15:30:33.993Z</time></trkpt><trkpt lat="40.5966842793827" lon="9.26103670217287"><ele>612.0</ele><time>2026-04-30T15:30:34.993Z</time></trkpt><trkpt lat="40.596504570350206" lon="9.260794681169203"><ele>612.0</ele><time>2026-04-30T15:30:35.993Z</time></trkpt><trkpt lat="40.59632360061817" lon="9.260551814338887"><ele>611.0</ele><time>2026-04-30T15:30:36.993Z</time></trkpt><trkpt lat="40.59614375179779" lon="9.260311938402085"><ele>610.0</ele><time>2026-04-30T15:30:37.993Z</time></trkpt><trkpt lat="40.59596460106717" lon="9.260073511316765"><ele>610.0</ele><time>2026-04-30T15:30:38.993Z</time></trkpt><trkpt lat="40.59578396927717" lon="9.259830766225837"><ele>610.0</ele><time>2026-04-30T15:30:39.993Z</time></trkpt><trkpt lat="40.59560327551924" lon="9.259589040659383"><ele>610.0</ele><time>2026-04-30T15:30:40.993Z</time></trkpt><trkpt lat="40.59541854194005" lon="9.2593458263387"><ele>610.0</ele><time>2026-04-30T15:30:41.993Z</time></trkpt><trkpt lat="40.59523328684204" lon="9.259101095771346"><ele>610.0</ele><time>2026-04-30T15:30:42.993Z</time></trkpt><trkpt lat="40.59504983518615" lon="9.258854089102309"><ele>610.0</ele><time>2026-04-30T15:30:43.993Z</time></trkpt><trkpt lat="40.594866608681" lon="9.25860696964523"><ele>610.0</ele><time>2026-04-30T15:30:44.993Z</time></trkpt><trkpt lat="40.594683772186166" lon="9.258358264119543"><ele>610.0</ele><time>2026-04-30T15:30:45.993Z</time></trkpt><trkpt lat="40.594498912099056" lon="9.258113104129722"><ele>611.0</ele><time>2026-04-30T15:30:46.993Z</time></trkpt><trkpt lat="40.59431319156893" lon="9.257867263771972"><ele>612.0</ele><time>2026-04-30T15:30:47.993Z</time></trkpt><trkpt lat="40.59412590848149" lon="9.257616731939454"><ele>612.0</ele><time>2026-04-30T15:30:48.993Z</time></trkpt><trkpt lat="40.59393776412884" lon="9.25736416294052"><ele>612.0</ele><time>2026-04-30T15:30:49.993Z</time></trkpt><trkpt lat="40.5937510866073" lon="9.257115089286312"><ele>613.5</ele><time>2026-04-30T15:30:50.993Z</time></trkpt><trkpt lat="40.593563245058746" lon="9.256864040960174"><ele>615.0</ele><time>2026-04-30T15:30:51.993Z</time></trkpt><trkpt lat="40.593370664839306" lon="9.256612956391075"><ele>614.5</ele><time>2026-04-30T15:30:52.993Z</time></trkpt><trkpt lat="40.59318541368939" lon="9.256359129419682"><ele>614.0</ele><time>2026-04-30T15:30:53.993Z</time></trkpt><trkpt lat="40.59299860708086" lon="9.256105143351824"><ele>614.0</ele><time>2026-04-30T15:30:54.993Z</time></trkpt><trkpt lat="40.59280718042337" lon="9.255853361009677"><ele>614.0</ele><time>2026-04-30T15:30:55.993Z</time></trkpt><trkpt lat="40.59261688323293" lon="9.25559954687939"><ele>613.5</ele><time>2026-04-30T15:30:56.993Z</time></trkpt><trkpt lat="40.59242902008445" lon="9.255348953664901"><ele>613.0</ele><time>2026-04-30T15:30:57.993Z</time></trkpt><trkpt lat="40.59223716322692" lon="9.255097802433156"><ele>613.0</ele><time>2026-04-30T15:30:58.993Z</time></trkpt><trkpt lat="40.592046873450265" lon="9.254848555166705"><ele>613.0</ele><time>2026-04-30T15:30:59.993Z</time></trkpt><trkpt lat="40.591862062576624" lon="9.254600262580878"><ele>612.5</ele><time>2026-04-30T15:31:00.993Z</time></trkpt><trkpt lat="40.59168101833714" lon="9.254353444587903"><ele>612.0</ele><time>2026-04-30T15:31:01.993Z</time></trkpt><trkpt lat="40.591501835830954" lon="9.254107921693194"><ele>612.5</ele><time>2026-04-30T15:31:02.993Z</time></trkpt><trkpt lat="40.59132567221826" lon="9.253863949089464"><ele>613.0</ele><time>2026-04-30T15:31:03.993Z</time></trkpt><trkpt lat="40.59115277261344" lon="9.253613781730964"><ele>611.5</ele><time>2026-04-30T15:31:04.993Z</time></trkpt><trkpt lat="40.59098582071193" lon="9.253357140055355"><ele>610.0</ele><time>2026-04-30T15:31:05.993Z</time></trkpt><trkpt lat="40.5908231163744" lon="9.253095564132602"><ele>609.5</ele><time>2026-04-30T15:31:06.993Z</time></trkpt><trkpt lat="40.59066941905842" lon="9.252827027175078"><ele>609.0</ele><time>2026-04-30T15:31:07.993Z</time></trkpt><trkpt lat="40.590519691729696" lon="9.252552211197793"><ele>609.5</ele><time>2026-04-30T15:31:08.993Z</time></trkpt><trkpt lat="40.59037561476478" lon="9.252276681885451"><ele>610.0</ele><time>2026-04-30T15:31:09.993Z</time></trkpt><trkpt lat="40.59024205240419" lon="9.25200056968176"><ele>610.0</ele><time>2026-04-30T15:31:10.993Z</time></trkpt><trkpt lat="40.59012690215431" lon="9.251746143198597"><ele>610.0</ele><time>2026-04-30T15:31:11.993Z</time></trkpt><trkpt lat="40.5900146719704" lon="9.251471524848341"><ele>610.5</ele><time>2026-04-30T15:31:12.993Z</time></trkpt><trkpt lat="40.589900235807924" lon="9.25119204838158"><ele>611.0</ele><time>2026-04-30T15:31:13.993Z</time></trkpt><trkpt lat="40.58979811808001" lon="9.250919639232114"><ele>611.0</ele><time>2026-04-30T15:31:14.993Z</time></trkpt><trkpt lat="40.58970093278864" lon="9.250639804241542"><ele>611.0</ele><time>2026-04-30T15:31:15.993Z</time></trkpt><trkpt lat="40.58961034767233" lon="9.250360477654125"><ele>610.5</ele><time>2026-04-30T15:31:16.993Z</time></trkpt><trkpt lat="40.58952380080633" lon="9.250070523924126"><ele>610.0</ele><time>2026-04-30T15:31:17.993Z</time></trkpt><trkpt lat="40.58944295821223" lon="9.249779615727592"><ele>611.0</ele><time>2026-04-30T15:31:18.993Z</time></trkpt><trkpt lat="40.58936396355312" lon="9.249483932352453"><ele>612.0</ele><time>2026-04-30T15:31:19.993Z</time></trkpt><trkpt lat="40.58929365094566" lon="9.249192429161607"><ele>610.0</ele><time>2026-04-30T15:31:20.993Z</time></trkpt><trkpt lat="40.58922247107317" lon="9.248892104790743"><ele>608.0</ele><time>2026-04-30T15:31:21.991Z</time></trkpt><trkpt lat="40.589162679025335" lon="9.248591601474484"><ele>608.0</ele><time>2026-04-30T15:31:22.992Z</time></trkpt><trkpt lat="40.58910795391427" lon="9.248292658371334"><ele>608.0</ele><time>2026-04-30T15:31:23.992Z</time></trkpt><trkpt lat="40.589060564868504" lon="9.24800170039983"><ele>608.0</ele><time>2026-04-30T15:31:24.992Z</time></trkpt><trkpt lat="40.589010678134656" lon="9.247693873057912"><ele>608.0</ele><time>2026-04-30T15:31:25.991Z</time></trkpt><trkpt lat="40.58892355872316" lon="9.247353866340017"><ele>608.0</ele><time>2026-04-30T15:31:26.991Z</time></trkpt><trkpt lat="40.58885098688635" lon="9.247025466332783"><ele>608.0</ele><time>2026-04-30T15:31:27.992Z</time></trkpt><trkpt lat="40.58878608420238" lon="9.24670713140634"><ele>608.0</ele><time>2026-04-30T15:31:28.992Z</time></trkpt><trkpt lat="40.58872348581681" lon="9.246390184518749"><ele>608.0</ele><time>2026-04-30T15:31:29.992Z</time></trkpt><trkpt lat="40.58866025687894" lon="9.24606973356452"><ele>609.0</ele><time>2026-04-30T15:31:30.992Z</time></trkpt><trkpt lat="40.5885981503825" lon="9.245753159209169"><ele>610.0</ele><time>2026-04-30T15:31:31.992Z</time></trkpt><trkpt lat="40.588535646819054" lon="9.245436214068238"><ele>610.0</ele><time>2026-04-30T15:31:32.992Z</time></trkpt><trkpt lat="40.58846931118307" lon="9.245121646386048"><ele>610.0</ele><time>2026-04-30T15:31:33.992Z</time></trkpt><trkpt lat="40.58840667989783" lon="9.244807969615461"><ele>609.5</ele><time>2026-04-30T15:31:34.992Z</time></trkpt><trkpt lat="40.58834104124582" lon="9.244488713044312"><ele>609.0</ele><time>2026-04-30T15:31:35.992Z</time></trkpt><trkpt lat="40.58827795775747" lon="9.244182364517352"><ele>608.5</ele><time>2026-04-30T15:31:36.992Z</time></trkpt><trkpt lat="40.58821601913031" lon="9.243879238847587"><ele>608.0</ele><time>2026-04-30T15:31:37.992Z</time></trkpt><trkpt lat="40.58816027281557" lon="9.243585960991194"><ele>608.0</ele><time>2026-04-30T15:31:38.992Z</time></trkpt><trkpt lat="40.58811606814459" lon="9.243293239372225"><ele>608.0</ele><time>2026-04-30T15:31:39.992Z</time></trkpt><trkpt lat="40.58802937191691" lon="9.24295055648178"><ele>607.5</ele><time>2026-04-30T15:31:40.992Z</time></trkpt><trkpt lat="40.58795827267162" lon="9.242626854652146"><ele>607.0</ele><time>2026-04-30T15:31:41.992Z</time></trkpt><trkpt lat="40.5878888102108" lon="9.242304340204136"><ele>607.5</ele><time>2026-04-30T15:31:42.992Z</time></trkpt><trkpt lat="40.58782514431543" lon="9.241985018528586"><ele>608.0</ele><time>2026-04-30T15:31:43.992Z</time></trkpt><trkpt lat="40.58776391315351" lon="9.241672434381874"><ele>607.5</ele><time>2026-04-30T15:31:44.992Z</time></trkpt><trkpt lat="40.587701365286506" lon="9.241358000439135"><ele>607.0</ele><time>2026-04-30T15:31:45.992Z</time></trkpt><trkpt lat="40.587639841754644" lon="9.241046379841473"><ele>607.0</ele><time>2026-04-30T15:31:46.992Z</time></trkpt><trkpt lat="40.58757627221729" lon="9.240735409167256"><ele>607.0</ele><time>2026-04-30T15:31:47.992Z</time></trkpt><trkpt lat="40.58751234781667" lon="9.240422425508424"><ele>606.5</ele><time>2026-04-30T15:31:48.992Z</time></trkpt><trkpt lat="40.587443374113604" lon="9.240113353165443"><ele>606.0</ele><time>2026-04-30T15:31:49.992Z</time></trkpt><trkpt lat="40.58737606449626" lon="9.239804464331128"><ele>606.5</ele><time>2026-04-30T15:31:50.992Z</time></trkpt><trkpt lat="40.58731603595333" lon="9.2394929083788"><ele>607.0</ele><time>2026-04-30T15:31:51.992Z</time></trkpt><trkpt lat="40.587252717483025" lon="9.239182918314516"><ele>607.5</ele><time>2026-04-30T15:31:52.992Z</time></trkpt><trkpt lat="40.58719123210241" lon="9.238877925007378"><ele>608.0</ele><time>2026-04-30T15:31:53.992Z</time></trkpt><trkpt lat="40.58712465358038" lon="9.23856147448613"><ele>608.0</ele><time>2026-04-30T15:31:54.992Z</time></trkpt><trkpt lat="40.587062850976054" lon="9.238260499917429"><ele>608.0</ele><time>2026-04-30T15:31:55.992Z</time></trkpt><trkpt lat="40.58700013327481" lon="9.237964476969998"><ele>610.0</ele><time>2026-04-30T15:31:56.992Z</time></trkpt><trkpt lat="40.58693853147495" lon="9.237667258832767"><ele>612.0</ele><time>2026-04-30T15:31:57.992Z</time></trkpt><trkpt lat="40.58686608886742" lon="9.237353603792497"><ele>611.5</ele><time>2026-04-30T15:31:58.992Z</time></trkpt><trkpt lat="40.58679716416768" lon="9.237035668694189"><ele>611.0</ele><time>2026-04-30T15:31:59.992Z</time></trkpt><trkpt lat="40.586727453702004" lon="9.236720271388313"><ele>610.0</ele><time>2026-04-30T15:32:00.992Z</time></trkpt><trkpt lat="40.586657894692955" lon="9.236398220141389"><ele>609.0</ele><time>2026-04-30T15:32:01.992Z</time></trkpt><trkpt lat="40.586583627843915" lon="9.236081833610006"><ele>609.0</ele><time>2026-04-30T15:32:02.992Z</time></trkpt><trkpt lat="40.58651541470816" lon="9.235756534344137"><ele>609.0</ele><time>2026-04-30T15:32:03.992Z</time></trkpt><trkpt lat="40.58644819331679" lon="9.235437555457214"><ele>609.0</ele><time>2026-04-30T15:32:04.992Z</time></trkpt><trkpt lat="40.586371619601586" lon="9.235118412993721"><ele>609.0</ele><time>2026-04-30T15:32:05.992Z</time></trkpt><trkpt lat="40.58629102450006" lon="9.2348053266804"><ele>608.5</ele><time>2026-04-30T15:32:06.992Z</time></trkpt><trkpt lat="40.58620703468672" lon="9.23449065051105"><ele>608.0</ele><time>2026-04-30T15:32:07.992Z</time></trkpt><trkpt lat="40.58611794537895" lon="9.234176113057362"><ele>608.5</ele><time>2026-04-30T15:32:08.992Z</time></trkpt><trkpt lat="40.586028783146816" lon="9.233862949594156"><ele>609.0</ele><time>2026-04-30T15:32:09.992Z</time></trkpt><trkpt lat="40.58593846759236" lon="9.233554085104858"><ele>609.0</ele><time>2026-04-30T15:32:10.992Z</time></trkpt><trkpt lat="40.58584313466909" lon="9.233243256965865"><ele>609.0</ele><time>2026-04-30T15:32:11.992Z</time></trkpt><trkpt lat="40.58574172180404" lon="9.23293068297537"><ele>608.5</ele><time>2026-04-30T15:32:12.992Z</time></trkpt><trkpt lat="40.58563872871199" lon="9.232617548153906"><ele>608.0</ele><time>2026-04-30T15:32:13.992Z</time></trkpt><trkpt lat="40.58553016759245" lon="9.23230647908703"><ele>609.0</ele><time>2026-04-30T15:32:14.992Z</time></trkpt><trkpt lat="40.58541869428217" lon="9.231997060000383"><ele>610.0</ele><time>2026-04-30T15:32:15.992Z</time></trkpt><trkpt lat="40.58530221254834" lon="9.231685699198811"><ele>610.5</ele><time>2026-04-30T15:32:16.992Z</time></trkpt><trkpt lat="40.585181810442116" lon="9.231380459445301"><ele>611.0</ele><time>2026-04-30T15:32:17.992Z</time></trkpt><trkpt lat="40.58506003312232" lon="9.231078156833613"><ele>611.0</ele><time>2026-04-30T15:32:18.992Z</time></trkpt><trkpt lat="40.584939553467905" lon="9.230776931869354"><ele>611.0</ele><time>2026-04-30T15:32:19.992Z</time></trkpt><trkpt lat="40.58481756919999" lon="9.230472227937684"><ele>611.5</ele><time>2026-04-30T15:32:20.992Z</time></trkpt><trkpt lat="40.584699831617314" lon="9.230171846361863"><ele>612.0</ele><time>2026-04-30T15:32:21.992Z</time></trkpt><trkpt lat="40.58457911389518" lon="9.229865972665497"><ele>612.5</ele><time>2026-04-30T15:32:22.992Z</time></trkpt><trkpt lat="40.58446007277148" lon="9.22956515438382"><ele>613.0</ele><time>2026-04-30T15:32:23.992Z</time></trkpt><trkpt lat="40.58433896647916" lon="9.229262334425526"><ele>613.0</ele><time>2026-04-30T15:32:24.992Z</time></trkpt><trkpt lat="40.58422001728419" lon="9.228967282445801"><ele>613.0</ele><time>2026-04-30T15:32:25.992Z</time></trkpt><trkpt lat="40.584101715160585" lon="9.228670894986076"><ele>613.0</ele><time>2026-04-30T15:32:26.992Z</time></trkpt><trkpt lat="40.58398574956288" lon="9.228377085758966"><ele>613.0</ele><time>2026-04-30T15:32:27.992Z</time></trkpt><trkpt lat="40.58386865005304" lon="9.228080889193373"><ele>613.5</ele><time>2026-04-30T15:32:28.992Z</time></trkpt><trkpt lat="40.58375329234824" lon="9.227789627128073"><ele>614.0</ele><time>2026-04-30T15:32:29.992Z</time></trkpt><trkpt lat="40.583638713391835" lon="9.227498773344019"><ele>615.0</ele><time>2026-04-30T15:32:30.992Z</time></trkpt><trkpt lat="40.583522501605835" lon="9.227210236408698"><ele>616.0</ele><time>2026-04-30T15:32:31.992Z</time></trkpt><trkpt lat="40.58340557943294" lon="9.226920039785439"><ele>616.0</ele><time>2026-04-30T15:32:32.992Z</time></trkpt><trkpt lat="40.58328731315285" lon="9.226628615777651"><ele>616.0</ele><time>2026-04-30T15:32:33.992Z</time></trkpt><trkpt lat="40.583171488794804" lon="9.226338816692625"><ele>617.5</ele><time>2026-04-30T15:32:34.992Z</time></trkpt><trkpt lat="40.5830551109726" lon="9.226046541757706"><ele>619.0</ele><time>2026-04-30T15:32:35.992Z</time></trkpt><trkpt lat="40.5829400021385" lon="9.225755871355954"><ele>621.5</ele><time>2026-04-30T15:32:36.992Z</time></trkpt><trkpt lat="40.5828208727452" lon="9.225464243889805"><ele>624.0</ele><time>2026-04-30T15:32:37.992Z</time></trkpt><trkpt lat="40.582703391655386" lon="9.225172102800084"><ele>624.0</ele><time>2026-04-30T15:32:38.992Z</time></trkpt><trkpt lat="40.58258738255386" lon="9.224885811005553"><ele>624.0</ele><time>2026-04-30T15:32:39.992Z</time></trkpt><trkpt lat="40.582472635842926" lon="9.224599193436351"><ele>624.0</ele><time>2026-04-30T15:32:40.992Z</time></trkpt><trkpt lat="40.582358927720115" lon="9.224314664266323"><ele>624.0</ele><time>2026-04-30T15:32:41.992Z</time></trkpt><trkpt lat="40.58224235836122" lon="9.224020499737264"><ele>624.0</ele><time>2026-04-30T15:32:42.992Z</time></trkpt><trkpt lat="40.582127030496004" lon="9.223725934155706"><ele>624.0</ele><time>2026-04-30T15:32:43.992Z</time></trkpt><trkpt lat="40.582013844263976" lon="9.22343104892083"><ele>626.0</ele><time>2026-04-30T15:32:44.992Z</time></trkpt><trkpt lat="40.58189837252034" lon="9.223137709888922"><ele>628.0</ele><time>2026-04-30T15:32:45.992Z</time></trkpt><trkpt lat="40.58178217695185" lon="9.22284775516902"><ele>628.0</ele><time>2026-04-30T15:32:46.992Z</time></trkpt><trkpt lat="40.581666156239464" lon="9.22256301062299"><ele>628.0</ele><time>2026-04-30T15:32:47.992Z</time></trkpt><trkpt lat="40.58155724075032" lon="9.222286565354612"><ele>628.6666666666667</ele><time>2026-04-30T15:32:48.992Z</time></trkpt><trkpt lat="40.581450088244395" lon="9.222012374337808"><ele>629.3333333333334</ele><time>2026-04-30T15:32:49.992Z</time></trkpt><trkpt lat="40.58135359160534" lon="9.221766681395827"><ele>630.0</ele><time>2026-04-30T15:32:50.992Z</time></trkpt><trkpt lat="40.58127424431694" lon="9.221547671985094"><ele>631.0</ele><time>2026-04-30T15:32:51.992Z</time></trkpt><trkpt lat="40.58120017171089" lon="9.221342014720745"><ele>632.0</ele><time>2026-04-30T15:32:52.992Z</time></trkpt><trkpt lat="40.58113087346639" lon="9.221149374116882"><ele>633.0</ele><time>2026-04-30T15:32:53.993Z</time></trkpt><trkpt lat="40.58107199157709" lon="9.220984604380579"><ele>633.1999999999999</ele><time>2026-04-30T15:32:54.993Z</time></trkpt><trkpt lat="40.58102141797601" lon="9.220845926457722"><ele>633.4</ele><time>2026-04-30T15:32:55.993Z</time></trkpt><trkpt lat="40.58099167825076" lon="9.220731782009887"><ele>633.5999999999999</ele><time>2026-04-30T15:32:56.993Z</time></trkpt><trkpt lat="40.58096456893965" lon="9.220642315654366"><ele>633.8</ele><time>2026-04-30T15:32:57.993Z</time></trkpt><trkpt lat="40.58099733925799" lon="9.220514037885403"><ele>634.0</ele><time>2026-04-30T15:32:58.993Z</time></trkpt><trkpt lat="40.58104579153234" lon="9.220406495566984"><ele>634.8</ele><time>2026-04-30T15:32:59.993Z</time></trkpt><trkpt lat="40.58110718210863" lon="9.22028063868946"><ele>635.5999999999999</ele><time>2026-04-30T15:33:00.993Z</time></trkpt><trkpt lat="40.581175321531866" lon="9.220144761142567"><ele>636.4</ele><time>2026-04-30T15:33:01.993Z</time></trkpt><trkpt lat="40.58123229185831" lon="9.220035824243453"><ele>637.1999999999999</ele><time>2026-04-30T15:33:02.993Z</time></trkpt><trkpt lat="40.581280475340236" lon="9.21993649863476"><ele>638.0</ele><time>2026-04-30T15:33:03.993Z</time></trkpt><trkpt lat="40.58131467244141" lon="9.219846608809615"><ele>637.8333333333333</ele><time>2026-04-30T15:33:04.993Z</time></trkpt><trkpt lat="40.58133471321323" lon="9.219757967281453"><ele>637.6666666666666</ele><time>2026-04-30T15:33:06.993Z</time></trkpt><trkpt lat="40.581330977595854" lon="9.219655131215815"><ele>637.5</ele><time>2026-04-30T15:34:17.991Z</time></trkpt><trkpt lat="40.581309636205255" lon="9.219503295687819"><ele>637.3333333333334</ele><time>2026-04-30T15:34:19.991Z</time></trkpt><trkpt lat="40.58127226129177" lon="9.219409257703036"><ele>637.1666666666667</ele><time>2026-04-30T15:34:20.991Z</time></trkpt><trkpt lat="40.581225093014886" lon="9.21930052760627"><ele>637.0</ele><time>2026-04-30T15:34:21.991Z</time></trkpt><trkpt lat="40.58116880229517" lon="9.21918800484508"><ele>637.0</ele><time>2026-04-30T15:34:22.991Z</time></trkpt><trkpt lat="40.58118783740895" lon="9.218996549400725"><ele>637.0</ele><time>2026-04-30T15:34:23.991Z</time></trkpt><trkpt lat="40.58114526614632" lon="9.21884991765284"><ele>637.0</ele><time>2026-04-30T15:34:24.991Z</time></trkpt><trkpt lat="40.58109910719659" lon="9.218697335494586"><ele>637.0</ele><time>2026-04-30T15:34:25.991Z</time></trkpt><trkpt lat="40.58105004311723" lon="9.218535031343066"><ele>639.5</ele><time>2026-04-30T15:34:26.991Z</time></trkpt><trkpt lat="40.58100311346195" lon="9.218372711090511"><ele>642.0</ele><time>2026-04-30T15:34:27.991Z</time></trkpt><trkpt lat="40.58095188064545" lon="9.21819575200551"><ele>644.5</ele><time>2026-04-30T15:34:28.991Z</time></trkpt><trkpt lat="40.58089771282857" lon="9.218013539394562"><ele>647.0</ele><time>2026-04-30T15:34:29.991Z</time></trkpt><trkpt lat="40.58083894089738" lon="9.217823407204822"><ele>648.0</ele><time>2026-04-30T15:34:30.991Z</time></trkpt><trkpt lat="40.58078013486376" lon="9.217628728303138"><ele>649.0</ele><time>2026-04-30T15:34:31.991Z</time></trkpt><trkpt lat="40.58072080295064" lon="9.217421532969956"><ele>650.0</ele><time>2026-04-30T15:34:32.991Z</time></trkpt><trkpt lat="40.58065918569896" lon="9.217206669727243"><ele>650.0</ele><time>2026-04-30T15:34:33.991Z</time></trkpt><trkpt lat="40.580600403651985" lon="9.21700217790111"><ele>650.0</ele><time>2026-04-30T15:34:34.991Z</time></trkpt><trkpt lat="40.580538051092404" lon="9.216784020776025"><ele>650.0</ele><time>2026-04-30T15:34:35.991Z</time></trkpt><trkpt lat="40.580475056316395" lon="9.21655591995668"><ele>651.6666666666666</ele><time>2026-04-30T15:34:36.991Z</time></trkpt><trkpt lat="40.58041141988453" lon="9.216321007844062"><ele>653.3333333333334</ele><time>2026-04-30T15:34:37.991Z</time></trkpt><trkpt lat="40.58034377360943" lon="9.21608752754048"><ele>655.0</ele><time>2026-04-30T15:34:38.991Z</time></trkpt><trkpt lat="40.58027764994802" lon="9.215856381724572"><ele>654.6666666666667</ele><time>2026-04-30T15:34:39.991Z</time></trkpt><trkpt lat="40.580209669429124" lon="9.215645871676127"><ele>654.3333333333334</ele><time>2026-04-30T15:34:40.991Z</time></trkpt><trkpt lat="40.580150999902145" lon="9.215441055497829"><ele>654.0</ele><time>2026-04-30T15:34:41.991Z</time></trkpt><trkpt lat="40.58009967776626" lon="9.215232577132618"><ele>654.0</ele><time>2026-04-30T15:34:42.991Z</time></trkpt><trkpt lat="40.5800560357606" lon="9.215017743242727"><ele>654.0</ele><time>2026-04-30T15:34:43.991Z</time></trkpt><trkpt lat="40.58002003290769" lon="9.214812275151282"><ele>654.0</ele><time>2026-04-30T15:34:44.991Z</time></trkpt><trkpt lat="40.57999840456771" lon="9.214615510294356"><ele>654.25</ele><time>2026-04-30T15:34:45.991Z</time></trkpt><trkpt lat="40.579965220872474" lon="9.214431107192972"><ele>654.5</ele><time>2026-04-30T15:34:46.991Z</time></trkpt><trkpt lat="40.579926164942215" lon="9.214265070722892"><ele>654.75</ele><time>2026-04-30T15:34:47.991Z</time></trkpt><trkpt lat="40.57986720072862" lon="9.214123267443645"><ele>655.0</ele><time>2026-04-30T15:34:48.991Z</time></trkpt><trkpt lat="40.57978800062584" lon="9.213972250427092"><ele>656.0</ele><time>2026-04-30T15:34:49.991Z</time></trkpt><trkpt lat="40.579689494783764" lon="9.21384069074713"><ele>657.0</ele><time>2026-04-30T15:34:50.991Z</time></trkpt><trkpt lat="40.579576576766314" lon="9.213719351177827"><ele>658.0</ele><time>2026-04-30T15:34:51.991Z</time></trkpt><trkpt lat="40.579465591726816" lon="9.213587310447497"><ele>659.0</ele><time>2026-04-30T15:34:52.991Z</time></trkpt><trkpt lat="40.57935615946714" lon="9.213442151764795"><ele>656.0</ele><time>2026-04-30T15:34:53.991Z</time></trkpt><trkpt lat="40.57925087155561" lon="9.213277202553705"><ele>653.0</ele><time>2026-04-30T15:34:54.991Z</time></trkpt><trkpt lat="40.57912802525945" lon="9.213077055739388"><ele>650.0</ele><time>2026-04-30T15:34:55.991Z</time></trkpt><trkpt lat="40.578998903346466" lon="9.212868653794677"><ele>649.6666666666666</ele><time>2026-04-30T15:34:56.991Z</time></trkpt><trkpt lat="40.57887232603198" lon="9.212647337050644"><ele>649.3333333333334</ele><time>2026-04-30T15:34:57.991Z</time></trkpt><trkpt lat="40.578739947552506" lon="9.212416502156458"><ele>649.0</ele><time>2026-04-30T15:34:58.991Z</time></trkpt><trkpt lat="40.57860578584217" lon="9.21218967078573"><ele>646.3333333333334</ele><time>2026-04-30T15:34:59.991Z</time></trkpt><trkpt lat="40.57847293068398" lon="9.21196460377769"><ele>643.6666666666666</ele><time>2026-04-30T15:35:00.991Z</time></trkpt><trkpt lat="40.578343172292236" lon="9.211740577887003"><ele>641.0</ele><time>2026-04-30T15:35:01.991Z</time></trkpt><trkpt lat="40.578218163245" lon="9.21151840273849"><ele>641.3333333333333</ele><time>2026-04-30T15:35:02.991Z</time></trkpt><trkpt lat="40.578097133315964" lon="9.211303721402743"><ele>641.6666666666666</ele><time>2026-04-30T15:35:03.991Z</time></trkpt><trkpt lat="40.57797943577362" lon="9.211085175470052"><ele>642.0</ele><time>2026-04-30T15:35:04.991Z</time></trkpt><trkpt lat="40.5778620032736" lon="9.210863392697139"><ele>639.3333333333334</ele><time>2026-04-30T15:35:05.991Z</time></trkpt><trkpt lat="40.577748646989185" lon="9.210637441349926"><ele>636.6666666666667</ele><time>2026-04-30T15:35:06.991Z</time></trkpt><trkpt lat="40.57763395912875" lon="9.21041572447291"><ele>634.0</ele><time>2026-04-30T15:35:07.991Z</time></trkpt><trkpt lat="40.57752917831123" lon="9.21020028555206"><ele>634.0</ele><time>2026-04-30T15:35:08.991Z</time></trkpt><trkpt lat="40.5774347090747" lon="9.209996812633165"><ele>634.0</ele><time>2026-04-30T15:35:09.991Z</time></trkpt><trkpt lat="40.57736106900969" lon="9.209812050910582"><ele>634.0</ele><time>2026-04-30T15:35:10.991Z</time></trkpt><trkpt lat="40.57730176516102" lon="9.209648052169811"><ele>634.0</ele><time>2026-04-30T15:35:11.992Z</time></trkpt><trkpt lat="40.57726209297982" lon="9.209497989434963"><ele>634.0</ele><time>2026-04-30T15:35:12.992Z</time></trkpt><trkpt lat="40.57723898941015" lon="9.209333008882366"><ele>634.0</ele><time>2026-04-30T15:35:13.992Z</time></trkpt><trkpt lat="40.57723335957141" lon="9.209139377221755"><ele>634.0</ele><time>2026-04-30T15:35:14.992Z</time></trkpt><trkpt lat="40.57724303596566" lon="9.208937465258062"><ele>634.0</ele><time>2026-04-30T15:35:15.992Z</time></trkpt><trkpt lat="40.57719767472651" lon="9.208756614956817"><ele>634.0</ele><time>2026-04-30T15:35:16.992Z</time></trkpt><trkpt lat="40.57713922600044" lon="9.208547128483897"><ele>634.0</ele><time>2026-04-30T15:35:17.992Z</time></trkpt><trkpt lat="40.577062058715946" lon="9.208323714581564"><ele>633.0</ele><time>2026-04-30T15:35:18.992Z</time></trkpt><trkpt lat="40.577023605346135" lon="9.208125647373816"><ele>632.0</ele><time>2026-04-30T15:35:19.992Z</time></trkpt><trkpt lat="40.576983444178865" lon="9.207921194169451"><ele>631.0</ele><time>2026-04-30T15:35:20.992Z</time></trkpt><trkpt lat="40.57696741337315" lon="9.207730957480802"><ele>631.3333333333334</ele><time>2026-04-30T15:35:21.992Z</time></trkpt><trkpt lat="40.57697500648092" lon="9.207529012364159"><ele>631.6666666666666</ele><time>2026-04-30T15:35:22.992Z</time></trkpt><trkpt lat="40.577005214225856" lon="9.207306731127925"><ele>632.0</ele><time>2026-04-30T15:35:23.992Z</time></trkpt><trkpt lat="40.577020558427094" lon="9.207065067052811"><ele>627.0</ele><time>2026-04-30T15:35:24.992Z</time></trkpt><trkpt lat="40.57698397756264" lon="9.206750020889473"><ele>622.0</ele><time>2026-04-30T15:35:25.992Z</time></trkpt><trkpt lat="40.57694889928202" lon="9.20656528492986"><ele>617.0</ele><time>2026-04-30T15:35:26.992Z</time></trkpt><trkpt lat="40.57691908419651" lon="9.206418148053238"><ele>616.5</ele><time>2026-04-30T15:35:27.992Z</time></trkpt><trkpt lat="40.57688738852259" lon="9.206263990229868"><ele>616.0</ele><time>2026-04-30T15:35:28.992Z</time></trkpt><trkpt lat="40.5768533708351" lon="9.20609853851621"><ele>615.5</ele><time>2026-04-30T15:35:29.992Z</time></trkpt><trkpt lat="40.57680824200698" lon="9.205893924350306"><ele>615.0</ele><time>2026-04-30T15:35:30.992Z</time></trkpt><trkpt lat="40.57675037461637" lon="9.20567667865731"><ele>614.6666666666666</ele><time>2026-04-30T15:35:31.992Z</time></trkpt><trkpt lat="40.57667659124964" lon="9.20547259274671"><ele>614.3333333333333</ele><time>2026-04-30T15:35:32.992Z</time></trkpt><trkpt lat="40.576592622569365" lon="9.205291937515444"><ele>614.0</ele><time>2026-04-30T15:35:33.991Z</time></trkpt><trkpt lat="40.57651740541138" lon="9.205095082883911"><ele>614.0</ele><time>2026-04-30T15:35:34.991Z</time></trkpt><trkpt lat="40.57644854424406" lon="9.204878647340147"><ele>614.0</ele><time>2026-04-30T15:35:35.991Z</time></trkpt><trkpt lat="40.57639129154555" lon="9.204669650231619"><ele>614.0</ele><time>2026-04-30T15:35:36.991Z</time></trkpt><trkpt lat="40.57632586996194" lon="9.204433748009327"><ele>613.0</ele><time>2026-04-30T15:35:37.991Z</time></trkpt><trkpt lat="40.57626254149619" lon="9.204207618776202"><ele>612.0</ele><time>2026-04-30T15:35:38.991Z</time></trkpt><trkpt lat="40.57620173672668" lon="9.203990500593848"><ele>611.0</ele><time>2026-04-30T15:35:39.991Z</time></trkpt><trkpt lat="40.57614493030353" lon="9.203781833968593"><ele>610.75</ele><time>2026-04-30T15:35:40.991Z</time></trkpt><trkpt lat="40.576077771714914" lon="9.203590670034394"><ele>610.5</ele><time>2026-04-30T15:35:41.991Z</time></trkpt><trkpt lat="40.576039488267405" lon="9.203400777418441"><ele>610.25</ele><time>2026-04-30T15:35:42.991Z</time></trkpt><trkpt lat="40.5759838237389" lon="9.203238638174252"><ele>610.0</ele><time>2026-04-30T15:35:43.992Z</time></trkpt><trkpt lat="40.57591645839876" lon="9.20311219317923"><ele>611.5</ele><time>2026-04-30T15:35:44.992Z</time></trkpt><trkpt lat="40.575830547107124" lon="9.20301008755237"><ele>613.0</ele><time>2026-04-30T15:35:45.992Z</time></trkpt><trkpt lat="40.575725601242986" lon="9.20292320959092"><ele>614.5</ele><time>2026-04-30T15:35:46.992Z</time></trkpt><trkpt lat="40.575601745318906" lon="9.202850968975063"><ele>616.0</ele><time>2026-04-30T15:35:47.992Z</time></trkpt><trkpt lat="40.57544993578727" lon="9.202771906643727"><ele>616.3333333333334</ele><time>2026-04-30T15:35:48.992Z</time></trkpt><trkpt lat="40.57528180874088" lon="9.202696873363724"><ele>616.6666666666666</ele><time>2026-04-30T15:35:49.992Z</time></trkpt><trkpt lat="40.575113587044754" lon="9.202618013719865"><ele>617.0</ele><time>2026-04-30T15:35:50.992Z</time></trkpt><trkpt lat="40.57495343757891" lon="9.20252283930327"><ele>617.0</ele><time>2026-04-30T15:35:51.992Z</time></trkpt><trkpt lat="40.574788384829546" lon="9.202432330959665"><ele>617.0</ele><time>2026-04-30T15:35:52.992Z</time></trkpt><trkpt lat="40.574628000458524" lon="9.202332669541143"><ele>617.0</ele><time>2026-04-30T15:35:53.992Z</time></trkpt><trkpt lat="40.57447690419552" lon="9.202219688087839"><ele>618.3333333333333</ele><time>2026-04-30T15:35:54.992Z</time></trkpt><trkpt lat="40.574333902525225" lon="9.20209804567689"><ele>619.6666666666666</ele><time>2026-04-30T15:35:55.992Z</time></trkpt><trkpt lat="40.57419387264806" lon="9.201957863452384"><ele>621.0</ele><time>2026-04-30T15:35:56.992Z</time></trkpt><trkpt lat="40.57406301867965" lon="9.201806301706577"><ele>621.0</ele><time>2026-04-30T15:35:57.992Z</time></trkpt><trkpt lat="40.57394718158772" lon="9.201643634539348"><ele>621.0</ele><time>2026-04-30T15:35:58.992Z</time></trkpt><trkpt lat="40.57383692655505" lon="9.201469628605041"><ele>621.0</ele><time>2026-04-30T15:35:59.992Z</time></trkpt><trkpt lat="40.57373612412963" lon="9.201287656336818"><ele>621.0</ele><time>2026-04-30T15:36:00.992Z</time></trkpt><trkpt lat="40.57364003604466" lon="9.201087216035006"><ele>621.0</ele><time>2026-04-30T15:36:01.992Z</time></trkpt><trkpt lat="40.57354391375678" lon="9.200869097281155"><ele>621.0</ele><time>2026-04-30T15:36:02.992Z</time></trkpt><trkpt lat="40.57344728442098" lon="9.200639469285148"><ele>622.0</ele><time>2026-04-30T15:36:03.992Z</time></trkpt><trkpt lat="40.57334670758473" lon="9.200404274417014"><ele>623.0</ele><time>2026-04-30T15:36:04.992Z</time></trkpt><trkpt lat="40.57324782817791" lon="9.200161752718335"><ele>624.0</ele><time>2026-04-30T15:36:05.992Z</time></trkpt><trkpt lat="40.5731469955093" lon="9.199911512324826"><ele>628.5</ele><time>2026-04-30T15:36:06.992Z</time></trkpt><trkpt lat="40.57303854650193" lon="9.199649942115293"><ele>633.0</ele><time>2026-04-30T15:36:07.992Z</time></trkpt><trkpt lat="40.57292710334032" lon="9.199383403414046"><ele>632.0</ele><time>2026-04-30T15:36:08.992Z</time></trkpt><trkpt lat="40.57281680626402" lon="9.199112540306277"><ele>631.0</ele><time>2026-04-30T15:36:09.992Z</time></trkpt><trkpt lat="40.572706286638244" lon="9.198842752378374"><ele>631.0</ele><time>2026-04-30T15:36:10.992Z</time></trkpt><trkpt lat="40.572595818533884" lon="9.198573628978657"><ele>631.0</ele><time>2026-04-30T15:36:11.992Z</time></trkpt><trkpt lat="40.57248781901516" lon="9.1983035023514"><ele>633.5</ele><time>2026-04-30T15:36:12.992Z</time></trkpt><trkpt lat="40.5723805744945" lon="9.198033359839819"><ele>636.0</ele><time>2026-04-30T15:36:13.992Z</time></trkpt><trkpt lat="40.57227377347643" lon="9.197766810096862"><ele>636.0</ele><time>2026-04-30T15:36:14.992Z</time></trkpt><trkpt lat="40.57216767620228" lon="9.197501193118718"><ele>636.0</ele><time>2026-04-30T15:36:15.992Z</time></trkpt><trkpt lat="40.572060483677895" lon="9.197235586096985"><ele>637.3333333333334</ele><time>2026-04-30T15:36:16.992Z</time></trkpt><trkpt lat="40.57195473207887" lon="9.196973993295718"><ele>638.6666666666667</ele><time>2026-04-30T15:36:17.992Z</time></trkpt><trkpt lat="40.5718483630798" lon="9.196714342023423"><ele>640.0</ele><time>2026-04-30T15:36:18.992Z</time></trkpt><trkpt lat="40.571741566373234" lon="9.196456369094493"><ele>641.3333333333334</ele><time>2026-04-30T15:36:19.992Z</time></trkpt><trkpt lat="40.571629057715704" lon="9.196206801913991"><ele>642.6666666666666</ele><time>2026-04-30T15:36:20.992Z</time></trkpt><trkpt lat="40.57150637601724" lon="9.195966535600293"><ele>644.0</ele><time>2026-04-30T15:36:21.992Z</time></trkpt><trkpt lat="40.571372477587275" lon="9.19573485055108"><ele>645.0</ele><time>2026-04-30T15:36:22.992Z</time></trkpt><trkpt lat="40.571229249381645" lon="9.195510765887114"><ele>646.0</ele><time>2026-04-30T15:36:23.992Z</time></trkpt><trkpt lat="40.571079474351485" lon="9.195297248392844"><ele>647.0</ele><time>2026-04-30T15:36:24.992Z</time></trkpt><trkpt lat="40.57091859841653" lon="9.195098137961056"><ele>647.0</ele><time>2026-04-30T15:36:25.992Z</time></trkpt><trkpt lat="40.57075135825725" lon="9.194921684600237"><ele>647.0</ele><time>2026-04-30T15:36:26.992Z</time></trkpt><trkpt lat="40.57056688541111" lon="9.194755498470562"><ele>647.0</ele><time>2026-04-30T15:36:27.992Z</time></trkpt><trkpt lat="40.57037617126871" lon="9.194596532050959"><ele>650.0</ele><time>2026-04-30T15:36:28.992Z</time></trkpt><trkpt lat="40.57018204697872" lon="9.194445783622363"><ele>653.0</ele><time>2026-04-30T15:36:29.992Z</time></trkpt><trkpt lat="40.56998229650986" lon="9.194297332532319"><ele>653.0</ele><time>2026-04-30T15:36:30.992Z</time></trkpt><trkpt lat="40.56978339896955" lon="9.19415084816363"><ele>653.0</ele><time>2026-04-30T15:36:31.992Z</time></trkpt><trkpt lat="40.5695868838702" lon="9.19399992504385"><ele>654.6666666666666</ele><time>2026-04-30T15:36:32.992Z</time></trkpt><trkpt lat="40.56939644208467" lon="9.193852599912097"><ele>656.3333333333334</ele><time>2026-04-30T15:36:33.992Z</time></trkpt><trkpt lat="40.569217719870366" lon="9.193699661252952"><ele>658.0</ele><time>2026-04-30T15:36:34.992Z</time></trkpt><trkpt lat="40.569042155206624" lon="9.193534435769006"><ele>658.0</ele><time>2026-04-30T15:36:35.992Z</time></trkpt><trkpt lat="40.56886971427892" lon="9.193361314174165"><ele>658.0</ele><time>2026-04-30T15:36:36.992Z</time></trkpt><trkpt lat="40.56870151397239" lon="9.19317660890656"><ele>658.0</ele><time>2026-04-30T15:36:37.992Z</time></trkpt><trkpt lat="40.5685456233912" lon="9.192984429548218"><ele>658.6666666666667</ele><time>2026-04-30T15:36:38.992Z</time></trkpt><trkpt lat="40.56839769670053" lon="9.192777350559854"><ele>659.3333333333334</ele><time>2026-04-30T15:36:39.992Z</time></trkpt><trkpt lat="40.56825760843332" lon="9.192560093682308"><ele>660.0</ele><time>2026-04-30T15:36:40.992Z</time></trkpt><trkpt lat="40.56812904227272" lon="9.192337498943543"><ele>662.6666666666666</ele><time>2026-04-30T15:36:41.992Z</time></trkpt><trkpt lat="40.568010100776355" lon="9.192112235098278"><ele>665.3333333333333</ele><time>2026-04-30T15:36:42.992Z</time></trkpt><trkpt lat="40.56789305903407" lon="9.19187453837955"><ele>668.0</ele><time>2026-04-30T15:36:43.992Z</time></trkpt><trkpt lat="40.56778615086284" lon="9.191630267257647"><ele>662.3333333333333</ele><time>2026-04-30T15:36:44.992Z</time></trkpt><trkpt lat="40.56768549857259" lon="9.191373934017697"><ele>656.6666666666666</ele><time>2026-04-30T15:36:45.992Z</time></trkpt><trkpt lat="40.56758621250062" lon="9.191102097891724"><ele>651.0</ele><time>2026-04-30T15:36:46.992Z</time></trkpt><trkpt lat="40.567486787249514" lon="9.190826807090277"><ele>651.0</ele><time>2026-04-30T15:36:47.992Z</time></trkpt><trkpt lat="40.56738377063176" lon="9.190549212713549"><ele>651.0</ele><time>2026-04-30T15:36:48.992Z</time></trkpt><trkpt lat="40.567285233398245" lon="9.190271422587903"><ele>651.0</ele><time>2026-04-30T15:36:49.992Z</time></trkpt><trkpt lat="40.56718416397322" lon="9.189988806365411"><ele>651.0</ele><time>2026-04-30T15:36:50.992Z</time></trkpt><trkpt lat="40.56707922374974" lon="9.189708212133466"><ele>645.3333333333334</ele><time>2026-04-30T15:36:51.992Z</time></trkpt><trkpt lat="40.56697985845603" lon="9.189440360950467"><ele>639.6666666666667</ele><time>2026-04-30T15:36:52.992Z</time></trkpt><trkpt lat="40.566890575715256" lon="9.189177905396814"><ele>634.0</ele><time>2026-04-30T15:36:53.992Z</time></trkpt><trkpt lat="40.56680811906013" lon="9.188917842130014"><ele>633.3333333333334</ele><time>2026-04-30T15:36:54.992Z</time></trkpt><trkpt lat="40.56673519107871" lon="9.188664887820797"><ele>632.6666666666666</ele><time>2026-04-30T15:36:55.992Z</time></trkpt><trkpt lat="40.56666896947317" lon="9.188409333403794"><ele>632.0</ele><time>2026-04-30T15:36:56.992Z</time></trkpt><trkpt lat="40.56661377919126" lon="9.188155098941534"><ele>632.0</ele><time>2026-04-30T15:36:57.992Z</time></trkpt><trkpt lat="40.56657343823135" lon="9.187907438012568"><ele>632.0</ele><time>2026-04-30T15:36:58.992Z</time></trkpt><trkpt lat="40.5665482440185" lon="9.187660577341587"><ele>632.0</ele><time>2026-04-30T15:36:59.992Z</time></trkpt><trkpt lat="40.56653782668897" lon="9.187412962019447"><ele>631.3333333333333</ele><time>2026-04-30T15:37:00.992Z</time></trkpt><trkpt lat="40.56653989088174" lon="9.187151581257751"><ele>630.6666666666666</ele><time>2026-04-30T15:37:01.992Z</time></trkpt><trkpt lat="40.56656099595044" lon="9.18688572817817"><ele>630.0</ele><time>2026-04-30T15:37:02.992Z</time></trkpt><trkpt lat="40.56659793726225" lon="9.186616612604512"><ele>629.3333333333334</ele><time>2026-04-30T15:37:03.992Z</time></trkpt><trkpt lat="40.56663791702463" lon="9.186334137645645"><ele>628.6666666666667</ele><time>2026-04-30T15:37:04.992Z</time></trkpt><trkpt lat="40.566688595809325" lon="9.186056788424041"><ele>628.0</ele><time>2026-04-30T15:37:05.992Z</time></trkpt><trkpt lat="40.56673703984508" lon="9.18576923747176"><ele>626.5</ele><time>2026-04-30T15:37:06.992Z</time></trkpt><trkpt lat="40.566788160730376" lon="9.185471942134049"><ele>625.0</ele><time>2026-04-30T15:37:07.992Z</time></trkpt><trkpt lat="40.56683984909483" lon="9.185165208159814"><ele>625.0</ele><time>2026-04-30T15:37:08.992Z</time></trkpt><trkpt lat="40.56689171883811" lon="9.184856071772888"><ele>625.0</ele><time>2026-04-30T15:37:09.992Z</time></trkpt><trkpt lat="40.56694713002498" lon="9.184534874877908"><ele>623.3333333333334</ele><time>2026-04-30T15:37:10.992Z</time></trkpt><trkpt lat="40.567006069270036" lon="9.184257902178643"><ele>621.6666666666666</ele><time>2026-04-30T15:37:11.992Z</time></trkpt><trkpt lat="40.56707038647611" lon="9.184074002824277"><ele>620.0</ele><time>2026-04-30T15:37:12.992Z</time></trkpt><trkpt lat="40.56710712042521" lon="9.183615932534286"><ele>614.0</ele><time>2026-04-30T15:37:13.992Z</time></trkpt><trkpt lat="40.56715962673717" lon="9.183306901469114"><ele>608.0</ele><time>2026-04-30T15:37:14.992Z</time></trkpt><trkpt lat="40.567197578339965" lon="9.182991304017763"><ele>608.0</ele><time>2026-04-30T15:37:15.992Z</time></trkpt><trkpt lat="40.56725230366598" lon="9.182684164671901"><ele>608.0</ele><time>2026-04-30T15:37:16.992Z</time></trkpt><trkpt lat="40.56730597254811" lon="9.182378043283451"><ele>609.0</ele><time>2026-04-30T15:37:17.992Z</time></trkpt><trkpt lat="40.56735727354067" lon="9.18207622953416"><ele>610.0</ele><time>2026-04-30T15:37:18.993Z</time></trkpt><trkpt lat="40.567406710093564" lon="9.181777203204298"><ele>615.5</ele><time>2026-04-30T15:37:19.993Z</time></trkpt><trkpt lat="40.56745256200125" lon="9.181480014482881"><ele>621.0</ele><time>2026-04-30T15:37:20.993Z</time></trkpt><trkpt lat="40.56749324572549" lon="9.1811828615507"><ele>621.0</ele><time>2026-04-30T15:37:21.993Z</time></trkpt><trkpt lat="40.56753204695503" lon="9.180883298933404"><ele>621.0</ele><time>2026-04-30T15:37:22.993Z</time></trkpt><trkpt lat="40.56756402095134" lon="9.180583330851444"><ele>625.0</ele><time>2026-04-30T15:37:23.993Z</time></trkpt><trkpt lat="40.56758858189458" lon="9.18027939769855"><ele>629.0</ele><time>2026-04-30T15:37:24.993Z</time></trkpt><trkpt lat="40.56760757186631" lon="9.179975621520017"><ele>633.0</ele><time>2026-04-30T15:37:25.993Z</time></trkpt><trkpt lat="40.56761949737013" lon="9.179666340755334"><ele>637.0</ele><time>2026-04-30T15:37:26.993Z</time></trkpt><trkpt lat="40.567625136883116" lon="9.17935472457217"><ele>637.0</ele><time>2026-04-30T15:37:27.993Z</time></trkpt><trkpt lat="40.56762479681734" lon="9.17904287148762"><ele>637.0</ele><time>2026-04-30T15:37:28.993Z</time></trkpt><trkpt lat="40.56762382127012" lon="9.178730741133442"><ele>639.0</ele><time>2026-04-30T15:37:29.993Z</time></trkpt><trkpt lat="40.567618211834144" lon="9.17841397684421"><ele>641.0</ele><time>2026-04-30T15:37:30.993Z</time></trkpt><trkpt lat="40.56761271933449" lon="9.178101348355813"><ele>643.0</ele><time>2026-04-30T15:37:31.993Z</time></trkpt><trkpt lat="40.567595148999686" lon="9.177796824888222"><ele>645.0</ele><time>2026-04-30T15:37:32.993Z</time></trkpt><trkpt lat="40.56756609681322" lon="9.177491254992537"><ele>644.5</ele><time>2026-04-30T15:37:33.993Z</time></trkpt><trkpt lat="40.567534699878586" lon="9.17719262914075"><ele>644.0</ele><time>2026-04-30T15:37:34.993Z</time></trkpt><trkpt lat="40.56747768548934" lon="9.176905415728744"><ele>644.0</ele><time>2026-04-30T15:37:35.993Z</time></trkpt><trkpt lat="40.56742832685504" lon="9.176623450584758"><ele>644.0</ele><time>2026-04-30T15:37:36.993Z</time></trkpt><trkpt lat="40.56732863812137" lon="9.176353789054401"><ele>644.0</ele><time>2026-04-30T15:37:37.993Z</time></trkpt><trkpt lat="40.56724280729508" lon="9.17607497673755"><ele>642.0</ele><time>2026-04-30T15:37:38.993Z</time></trkpt><trkpt lat="40.567147382298074" lon="9.175797145672094"><ele>640.0</ele><time>2026-04-30T15:37:39.991Z</time></trkpt><trkpt lat="40.56705281098198" lon="9.175510288393424"><ele>641.5</ele><time>2026-04-30T15:37:40.991Z</time></trkpt><trkpt lat="40.56695794307999" lon="9.175229560443691"><ele>643.0</ele><time>2026-04-30T15:37:41.991Z</time></trkpt><trkpt lat="40.56687133316209" lon="9.17495311428063"><ele>642.6666666666667</ele><time>2026-04-30T15:37:42.991Z</time></trkpt><trkpt lat="40.56678764701981" lon="9.174688420046763"><ele>642.3333333333334</ele><time>2026-04-30T15:37:43.992Z</time></trkpt><trkpt lat="40.56671845301432" lon="9.174426913643579"><ele>642.0</ele><time>2026-04-30T15:37:44.992Z</time></trkpt><trkpt lat="40.566656343486166" lon="9.174167506915104"><ele>642.3333333333334</ele><time>2026-04-30T15:37:45.991Z</time></trkpt><trkpt lat="40.5666090297314" lon="9.17391464283974"><ele>642.6666666666667</ele><time>2026-04-30T15:37:46.991Z</time></trkpt><trkpt lat="40.56657692010503" lon="9.173661770235766"><ele>643.0</ele><time>2026-04-30T15:37:47.991Z</time></trkpt><trkpt lat="40.566562171229755" lon="9.173404369913008"><ele>641.0</ele><time>2026-04-30T15:37:48.991Z</time></trkpt><trkpt lat="40.566563405896574" lon="9.173144682445173"><ele>639.0</ele><time>2026-04-30T15:37:49.991Z</time></trkpt><trkpt lat="40.56657486002727" lon="9.172880604821154"><ele>637.0</ele><time>2026-04-30T15:37:50.991Z</time></trkpt><trkpt lat="40.56659953832137" lon="9.172608718576196"><ele>635.3333333333334</ele><time>2026-04-30T15:37:51.992Z</time></trkpt><trkpt lat="40.566636611088946" lon="9.172327465282747"><ele>633.6666666666666</ele><time>2026-04-30T15:37:52.992Z</time></trkpt><trkpt lat="40.566682165434855" lon="9.172034728246185"><ele>632.0</ele><time>2026-04-30T15:37:53.992Z</time></trkpt><trkpt lat="40.56673380933375" lon="9.171729650548482"><ele>628.5</ele><time>2026-04-30T15:37:54.992Z</time></trkpt><trkpt lat="40.56678589032438" lon="9.171420515937653"><ele>625.0</ele><time>2026-04-30T15:37:55.992Z</time></trkpt><trkpt lat="40.56683668969572" lon="9.171108446559794"><ele>625.0</ele><time>2026-04-30T15:37:56.992Z</time></trkpt><trkpt lat="40.566888093250306" lon="9.170778599808711"><ele>625.0</ele><time>2026-04-30T15:37:57.992Z</time></trkpt><trkpt lat="40.566939713589996" lon="9.170474592677397"><ele>626.3333333333334</ele><time>2026-04-30T15:37:58.992Z</time></trkpt><trkpt lat="40.56699642400705" lon="9.170198934307894"><ele>627.6666666666666</ele><time>2026-04-30T15:37:59.992Z</time></trkpt><trkpt lat="40.5670587791273" lon="9.169944195936125"><ele>629.0</ele><time>2026-04-30T15:38:00.992Z</time></trkpt><trkpt lat="40.567096916753805" lon="9.169578922441984"><ele>622.5</ele><time>2026-04-30T15:38:01.992Z</time></trkpt><trkpt lat="40.56714334504568" lon="9.16926707778686"><ele>616.0</ele><time>2026-04-30T15:38:02.992Z</time></trkpt><trkpt lat="40.567190422841215" lon="9.168963140006609"><ele>614.0</ele><time>2026-04-30T15:38:03.992Z</time></trkpt><trkpt lat="40.5672349912932" lon="9.168666787276258"><ele>612.0</ele><time>2026-04-30T15:38:04.992Z</time></trkpt><trkpt lat="40.56727146982085" lon="9.168372614224003"><ele>611.0</ele><time>2026-04-30T15:38:05.992Z</time></trkpt><trkpt lat="40.567298180556236" lon="9.168080513332011"><ele>610.0</ele><time>2026-04-30T15:38:06.992Z</time></trkpt><trkpt lat="40.56731430626819" lon="9.167785148439105"><ele>609.0</ele><time>2026-04-30T15:38:07.992Z</time></trkpt><trkpt lat="40.5673178215952" lon="9.16748422638657"><ele>610.0</ele><time>2026-04-30T15:38:08.992Z</time></trkpt><trkpt lat="40.56730661807405" lon="9.167183437113815"><ele>611.0</ele><time>2026-04-30T15:38:09.992Z</time></trkpt><trkpt lat="40.56728269126876" lon="9.166906687624587"><ele>612.0</ele><time>2026-04-30T15:38:10.992Z</time></trkpt><trkpt lat="40.56724467535112" lon="9.166650943050392"><ele>612.3333333333334</ele><time>2026-04-30T15:38:11.992Z</time></trkpt><trkpt lat="40.567193570073655" lon="9.166394765613456"><ele>612.6666666666667</ele><time>2026-04-30T15:38:12.992Z</time></trkpt><trkpt lat="40.56713018520383" lon="9.16613601974504"><ele>613.0</ele><time>2026-04-30T15:38:13.992Z</time></trkpt><trkpt lat="40.56705466986226" lon="9.165877751724235"><ele>615.6666666666667</ele><time>2026-04-30T15:38:14.992Z</time></trkpt><trkpt lat="40.56696751445438" lon="9.165622293716302"><ele>618.3333333333334</ele><time>2026-04-30T15:38:15.992Z</time></trkpt><trkpt lat="40.5668653223818" lon="9.165362723822527"><ele>621.0</ele><time>2026-04-30T15:38:16.992Z</time></trkpt><trkpt lat="40.5667539592233" lon="9.165107556358043"><ele>618.0</ele><time>2026-04-30T15:38:17.992Z</time></trkpt><trkpt lat="40.566634848716916" lon="9.164854533488212"><ele>615.0</ele><time>2026-04-30T15:38:18.992Z</time></trkpt><trkpt lat="40.56650449077097" lon="9.164601127412963"><ele>615.0</ele><time>2026-04-30T15:38:19.992Z</time></trkpt><trkpt lat="40.56637290860893" lon="9.164349724530618"><ele>615.0</ele><time>2026-04-30T15:38:20.992Z</time></trkpt><trkpt lat="40.566242586734674" lon="9.164101590673788"><ele>619.6666666666666</ele><time>2026-04-30T15:38:21.992Z</time></trkpt><trkpt lat="40.566120981735374" lon="9.163852386255611"><ele>624.3333333333333</ele><time>2026-04-30T15:38:22.992Z</time></trkpt><trkpt lat="40.566000013889905" lon="9.163606876637447"><ele>629.0</ele><time>2026-04-30T15:38:23.992Z</time></trkpt><trkpt lat="40.56588468942658" lon="9.163371538767848"><ele>626.6666666666666</ele><time>2026-04-30T15:38:24.992Z</time></trkpt><trkpt lat="40.56579235037331" lon="9.16314559966542"><ele>624.3333333333334</ele><time>2026-04-30T15:38:25.992Z</time></trkpt><trkpt lat="40.56571112700824" lon="9.162911090867086"><ele>622.0</ele><time>2026-04-30T15:38:26.992Z</time></trkpt><trkpt lat="40.5656382982974" lon="9.16267214396995"><ele>622.0</ele><time>2026-04-30T15:38:27.992Z</time></trkpt><trkpt lat="40.565582389399474" lon="9.162431748843359"><ele>622.0</ele><time>2026-04-30T15:38:28.992Z</time></trkpt><trkpt lat="40.56553703010006" lon="9.162176437949645"><ele>622.0</ele><time>2026-04-30T15:38:29.992Z</time></trkpt><trkpt lat="40.56550262483886" lon="9.16192160315132"><ele>620.0</ele><time>2026-04-30T15:38:30.992Z</time></trkpt><trkpt lat="40.56547451247431" lon="9.161663087162104"><ele>618.0</ele><time>2026-04-30T15:38:31.992Z</time></trkpt><trkpt lat="40.56547213455855" lon="9.161397979024667"><ele>616.0</ele><time>2026-04-30T15:38:32.992Z</time></trkpt><trkpt lat="40.56545013318791" lon="9.161130346687626"><ele>615.6666666666667</ele><time>2026-04-30T15:38:33.992Z</time></trkpt><trkpt lat="40.5654503843681" lon="9.16085587874485"><ele>615.3333333333334</ele><time>2026-04-30T15:38:34.992Z</time></trkpt><trkpt lat="40.56544989075816" lon="9.160579901769466"><ele>615.0</ele><time>2026-04-30T15:38:35.992Z</time></trkpt><trkpt lat="40.565443833513434" lon="9.160307474272466"><ele>617.3333333333334</ele><time>2026-04-30T15:38:36.992Z</time></trkpt><trkpt lat="40.565439936546355" lon="9.160038641903752"><ele>619.6666666666667</ele><time>2026-04-30T15:38:37.992Z</time></trkpt><trkpt lat="40.56542434674691" lon="9.159781609412917"><ele>622.0</ele><time>2026-04-30T15:38:38.992Z</time></trkpt><trkpt lat="40.565395816883495" lon="9.159540656185749"><ele>625.0</ele><time>2026-04-30T15:38:39.992Z</time></trkpt><trkpt lat="40.56535462865453" lon="9.159308585759762"><ele>628.0</ele><time>2026-04-30T15:38:40.992Z</time></trkpt><trkpt lat="40.56529803325081" lon="9.159090517115628"><ele>631.0</ele><time>2026-04-30T15:38:41.992Z</time></trkpt><trkpt lat="40.56522681963126" lon="9.158874652358886"><ele>631.0</ele><time>2026-04-30T15:38:42.992Z</time></trkpt><trkpt lat="40.565136668268906" lon="9.158678399523538"><ele>631.0</ele><time>2026-04-30T15:38:43.992Z</time></trkpt><trkpt lat="40.56503461376933" lon="9.158486905730364"><ele>631.0</ele><time>2026-04-30T15:38:44.992Z</time></trkpt><trkpt lat="40.564922949495525" lon="9.158314727094167"><ele>628.0</ele><time>2026-04-30T15:38:45.992Z</time></trkpt><trkpt lat="40.56479446185544" lon="9.158140664532368"><ele>625.0</ele><time>2026-04-30T15:38:46.992Z</time></trkpt><trkpt lat="40.56465148545197" lon="9.157991424664178"><ele>622.0</ele><time>2026-04-30T15:38:47.992Z</time></trkpt><trkpt lat="40.564494544200386" lon="9.157847765777912"><ele>622.0</ele><time>2026-04-30T15:38:48.992Z</time></trkpt><trkpt lat="40.564325317803714" lon="9.157711424196645"><ele>622.0</ele><time>2026-04-30T15:38:49.992Z</time></trkpt><trkpt lat="40.56414384909519" lon="9.157578853674385"><ele>622.0</ele><time>2026-04-30T15:38:50.992Z</time></trkpt><trkpt lat="40.56396098446751" lon="9.157450801757076"><ele>621.0</ele><time>2026-04-30T15:38:51.992Z</time></trkpt><trkpt lat="40.563777052173066" lon="9.157326067332585"><ele>620.0</ele><time>2026-04-30T15:38:52.992Z</time></trkpt><trkpt lat="40.56359760510004" lon="9.157198049487507"><ele>619.0</ele><time>2026-04-30T15:38:53.992Z</time></trkpt><trkpt lat="40.563429999023185" lon="9.157075893081869"><ele>619.0</ele><time>2026-04-30T15:38:54.992Z</time></trkpt><trkpt lat="40.56328291803995" lon="9.15696332420604"><ele>619.0</ele><time>2026-04-30T15:38:55.992Z</time></trkpt><trkpt lat="40.563148441388186" lon="9.156842225581949"><ele>619.0</ele><time>2026-04-30T15:38:56.992Z</time></trkpt><trkpt lat="40.563026150301106" lon="9.156710782973356"><ele>619.0</ele><time>2026-04-30T15:38:57.992Z</time></trkpt><trkpt lat="40.562912288765965" lon="9.15656925241393"><ele>619.0</ele><time>2026-04-30T15:38:58.992Z</time></trkpt><trkpt lat="40.562804754380736" lon="9.15641302454277"><ele>619.0</ele><time>2026-04-30T15:38:59.992Z</time></trkpt><trkpt lat="40.56270392117324" lon="9.15623647050981"><ele>617.0</ele><time>2026-04-30T15:39:00.992Z</time></trkpt><trkpt lat="40.56261602415255" lon="9.15605166839011"><ele>615.0</ele><time>2026-04-30T15:39:01.992Z</time></trkpt><trkpt lat="40.562540289345414" lon="9.155859944319268"><ele>613.0</ele><time>2026-04-30T15:39:02.992Z</time></trkpt><trkpt lat="40.562477856925824" lon="9.155663730612156"><ele>612.6666666666667</ele><time>2026-04-30T15:39:03.992Z</time></trkpt><trkpt lat="40.562430383561384" lon="9.155452662810703"><ele>612.3333333333334</ele><time>2026-04-30T15:39:04.992Z</time></trkpt><trkpt lat="40.56239988409778" lon="9.15523247204195"><ele>612.0</ele><time>2026-04-30T15:39:05.992Z</time></trkpt><trkpt lat="40.562382975071024" lon="9.155005550122251"><ele>610.6666666666666</ele><time>2026-04-30T15:39:06.992Z</time></trkpt><trkpt lat="40.5623773273795" lon="9.1547588170047"><ele>609.3333333333333</ele><time>2026-04-30T15:39:07.992Z</time></trkpt><trkpt lat="40.56238765591459" lon="9.154510583949156"><ele>608.0</ele><time>2026-04-30T15:39:08.992Z</time></trkpt><trkpt lat="40.56241350032397" lon="9.154265167282546"><ele>606.3333333333333</ele><time>2026-04-30T15:39:09.992Z</time></trkpt><trkpt lat="40.562448871907264" lon="9.15402274195037"><ele>604.6666666666666</ele><time>2026-04-30T15:39:10.992Z</time></trkpt><trkpt lat="40.562505424131786" lon="9.153787978239583"><ele>603.0</ele><time>2026-04-30T15:39:11.992Z</time></trkpt><trkpt lat="40.562575641032666" lon="9.153557509869307"><ele>603.0</ele><time>2026-04-30T15:39:12.992Z</time></trkpt><trkpt lat="40.56264938177858" lon="9.153327863918959"><ele>603.0</ele><time>2026-04-30T15:39:13.992Z</time></trkpt><trkpt lat="40.562723458781754" lon="9.153089623417946"><ele>603.0</ele><time>2026-04-30T15:39:14.992Z</time></trkpt><trkpt lat="40.56279750982873" lon="9.152846059174742"><ele>602.6666666666666</ele><time>2026-04-30T15:39:15.992Z</time></trkpt><trkpt lat="40.56287338239216" lon="9.15259177990997"><ele>602.3333333333333</ele><time>2026-04-30T15:39:16.992Z</time></trkpt><trkpt lat="40.562951583446356" lon="9.152337456567745"><ele>602.0</ele><time>2026-04-30T15:39:17.992Z</time></trkpt><trkpt lat="40.56302804523722" lon="9.152080937860799"><ele>605.0</ele><time>2026-04-30T15:39:18.992Z</time></trkpt><trkpt lat="40.56310264839498" lon="9.151829487124848"><ele>608.0</ele><time>2026-04-30T15:39:19.992Z</time></trkpt><trkpt lat="40.5631750408572" lon="9.151590997764737"><ele>611.0</ele><time>2026-04-30T15:39:20.992Z</time></trkpt><trkpt lat="40.56324700555099" lon="9.151355910668874"><ele>613.3333333333333</ele><time>2026-04-30T15:39:21.992Z</time></trkpt><trkpt lat="40.56331279168938" lon="9.151142197199144"><ele>615.6666666666666</ele><time>2026-04-30T15:39:22.992Z</time></trkpt><trkpt lat="40.56337630598061" lon="9.150939923866359"><ele>618.0</ele><time>2026-04-30T15:39:23.992Z</time></trkpt><trkpt lat="40.563435906212355" lon="9.150761946558255"><ele>619.6</ele><time>2026-04-30T15:39:24.992Z</time></trkpt><trkpt lat="40.563493685522104" lon="9.150603342773536"><ele>621.1999999999999</ele><time>2026-04-30T15:39:25.992Z</time></trkpt><trkpt lat="40.56355057683383" lon="9.15046123474861"><ele>622.8</ele><time>2026-04-30T15:39:26.992Z</time></trkpt><trkpt lat="40.56358614096806" lon="9.150346967119335"><ele>624.4</ele><time>2026-04-30T15:39:27.992Z</time></trkpt><trkpt lat="40.56361000905987" lon="9.150263800531024"><ele>626.0</ele><time>2026-04-30T15:39:28.992Z</time></trkpt><trkpt lat="40.5637210574368" lon="9.150286052524088"><ele>626.0</ele><time>2026-04-30T15:39:29.992Z</time></trkpt><trkpt lat="40.563787376848055" lon="9.1502569304285"><ele>626.0</ele><time>2026-04-30T15:39:30.992Z</time></trkpt><trkpt lat="40.5638653611821" lon="9.150283054198223"><ele>626.0</ele><time>2026-04-30T15:39:31.992Z</time></trkpt><trkpt lat="40.563956637054744" lon="9.150329818516543"><ele>626.0</ele><time>2026-04-30T15:39:32.992Z</time></trkpt><trkpt lat="40.56405688955777" lon="9.150380750206804"><ele>626.0</ele><time>2026-04-30T15:39:33.992Z</time></trkpt><trkpt lat="40.56415795460487" lon="9.150417318251744"><ele>626.0</ele><time>2026-04-30T15:39:34.992Z</time></trkpt><trkpt lat="40.56426408068971" lon="9.150423740981552"><ele>626.0</ele><time>2026-04-30T15:39:35.992Z</time></trkpt><trkpt lat="40.56436215311026" lon="9.150406778492716"><ele>626.0</ele><time>2026-04-30T15:39:36.992Z</time></trkpt><trkpt lat="40.56444938579184" lon="9.150367563300511"><ele>626.0</ele><time>2026-04-30T15:39:37.992Z</time></trkpt><trkpt lat="40.56453507860117" lon="9.150314338769647"><ele>626.0</ele><time>2026-04-30T15:39:38.992Z</time></trkpt><trkpt lat="40.56461632486441" lon="9.15022433046481"><ele>623.75</ele><time>2026-04-30T15:39:39.992Z</time></trkpt><trkpt lat="40.5647158249289" lon="9.150138161028055"><ele>621.5</ele><time>2026-04-30T15:39:40.992Z</time></trkpt><trkpt lat="40.56479374099762" lon="9.150014694404623"><ele>619.25</ele><time>2026-04-30T15:39:41.992Z</time></trkpt><trkpt lat="40.56485894668171" lon="9.149850220848487"><ele>617.0</ele><time>2026-04-30T15:39:42.992Z</time></trkpt><trkpt lat="40.564906653747094" lon="9.14967312519971"><ele>617.0</ele><time>2026-04-30T15:39:43.992Z</time></trkpt><trkpt lat="40.56495821347351" lon="9.149498245249266"><ele>617.0</ele><time>2026-04-30T15:39:44.992Z</time></trkpt><trkpt lat="40.565010312111404" lon="9.149345055262417"><ele>617.0</ele><time>2026-04-30T15:39:45.991Z</time></trkpt><trkpt lat="40.56507101040268" lon="9.149216077507045"><ele>617.0</ele><time>2026-04-30T15:39:46.99Z</time></trkpt><trkpt lat="40.56515392342409" lon="9.149108581341443"><ele>618.75</ele><time>2026-04-30T15:39:47.99Z</time></trkpt><trkpt lat="40.565255697435724" lon="9.149018713187987"><ele>620.5</ele><time>2026-04-30T15:39:48.991Z</time></trkpt><trkpt lat="40.56537485798268" lon="9.148959087067498"><ele>622.25</ele><time>2026-04-30T15:39:49.991Z</time></trkpt><trkpt lat="40.565489265929614" lon="9.148871608923692"><ele>624.0</ele><time>2026-04-30T15:39:50.991Z</time></trkpt><trkpt lat="40.56558433265631" lon="9.14876603753275"><ele>621.0</ele><time>2026-04-30T15:39:51.991Z</time></trkpt><trkpt lat="40.56567286665646" lon="9.148636913238775"><ele>618.0</ele><time>2026-04-30T15:39:52.99Z</time></trkpt><trkpt lat="40.5657420660393" lon="9.148450064566532"><ele>615.0</ele><time>2026-04-30T15:39:53.99Z</time></trkpt><trkpt lat="40.56580921586577" lon="9.148265183032672"><ele>612.0</ele><time>2026-04-30T15:39:54.991Z</time></trkpt><trkpt lat="40.565870420077516" lon="9.148093793300212"><ele>612.0</ele><time>2026-04-30T15:39:55.991Z</time></trkpt><trkpt lat="40.56593475509304" lon="9.147911406557158"><ele>612.0</ele><time>2026-04-30T15:39:56.991Z</time></trkpt><trkpt lat="40.565994198715494" lon="9.147706416023885"><ele>612.0</ele><time>2026-04-30T15:39:57.991Z</time></trkpt><trkpt lat="40.56604335270485" lon="9.147492273458589"><ele>612.3333333333334</ele><time>2026-04-30T15:39:58.991Z</time></trkpt><trkpt lat="40.56607826716153" lon="9.14727210928186"><ele>612.6666666666667</ele><time>2026-04-30T15:39:59.991Z</time></trkpt><trkpt lat="40.56610096846558" lon="9.147054956764944"><ele>613.0</ele><time>2026-04-30T15:40:00.991Z</time></trkpt><trkpt lat="40.5661185887626" lon="9.146846812469466"><ele>613.0</ele><time>2026-04-30T15:40:01.991Z</time></trkpt><trkpt lat="40.56614474962402" lon="9.146662574693133"><ele>613.0</ele><time>2026-04-30T15:40:02.991Z</time></trkpt><trkpt lat="40.566172887532645" lon="9.146483704174237"><ele>613.0</ele><time>2026-04-30T15:40:03.991Z</time></trkpt><trkpt lat="40.566222576667776" lon="9.146310424448304"><ele>613.0</ele><time>2026-04-30T15:40:04.991Z</time></trkpt><trkpt lat="40.566281905917386" lon="9.146142817908023"><ele>610.25</ele><time>2026-04-30T15:40:05.991Z</time></trkpt><trkpt lat="40.566362572689975" lon="9.145983630903864"><ele>607.5</ele><time>2026-04-30T15:40:06.991Z</time></trkpt><trkpt lat="40.56644076218328" lon="9.14582690172699"><ele>604.75</ele><time>2026-04-30T15:40:07.991Z</time></trkpt><trkpt lat="40.566505845279345" lon="9.145668513445058"><ele>602.0</ele><time>2026-04-30T15:40:08.991Z</time></trkpt><trkpt lat="40.56656654029466" lon="9.14549914379011"><ele>602.0</ele><time>2026-04-30T15:40:09.991Z</time></trkpt><trkpt lat="40.56662259321653" lon="9.145321856847648"><ele>602.0</ele><time>2026-04-30T15:40:10.991Z</time></trkpt><trkpt lat="40.56667854207448" lon="9.145160233577617"><ele>602.0</ele><time>2026-04-30T15:40:11.991Z</time></trkpt><trkpt lat="40.5667527207083" lon="9.145020398418366"><ele>602.0</ele><time>2026-04-30T15:40:12.991Z</time></trkpt><trkpt lat="40.56684937812796" lon="9.144891584372862"><ele>603.6666666666666</ele><time>2026-04-30T15:40:13.991Z</time></trkpt><trkpt lat="40.56698224906793" lon="9.144794974814937"><ele>605.3333333333334</ele><time>2026-04-30T15:40:14.991Z</time></trkpt><trkpt lat="40.567109182407556" lon="9.144677090079528"><ele>607.0</ele><time>2026-04-30T15:40:15.991Z</time></trkpt><trkpt lat="40.567240902350605" lon="9.144554759967296"><ele>603.3333333333334</ele><time>2026-04-30T15:40:16.991Z</time></trkpt><trkpt lat="40.567371119837595" lon="9.144433825221236"><ele>599.6666666666666</ele><time>2026-04-30T15:40:17.991Z</time></trkpt><trkpt lat="40.56750481153118" lon="9.144309663897124"><ele>596.0</ele><time>2026-04-30T15:40:18.991Z</time></trkpt><trkpt lat="40.56764001225485" lon="9.144178638510608"><ele>598.0</ele><time>2026-04-30T15:40:19.991Z</time></trkpt><trkpt lat="40.56777545782624" lon="9.144025978403267"><ele>600.0</ele><time>2026-04-30T15:40:20.991Z</time></trkpt><trkpt lat="40.56789894655018" lon="9.143850554031687"><ele>602.0</ele><time>2026-04-30T15:40:21.991Z</time></trkpt><trkpt lat="40.56801634388468" lon="9.14366528854483"><ele>599.6666666666666</ele><time>2026-04-30T15:40:22.991Z</time></trkpt><trkpt lat="40.568138286584755" lon="9.143473958942142"><ele>597.3333333333334</ele><time>2026-04-30T15:40:23.991Z</time></trkpt><trkpt lat="40.56826264666779" lon="9.143278836431175"><ele>595.0</ele><time>2026-04-30T15:40:24.991Z</time></trkpt><trkpt lat="40.56839273205712" lon="9.143074730808257"><ele>595.0</ele><time>2026-04-30T15:40:25.991Z</time></trkpt><trkpt lat="40.56852085023043" lon="9.142873187796633"><ele>595.0</ele><time>2026-04-30T15:40:26.991Z</time></trkpt><trkpt lat="40.568642161102765" lon="9.142682369416915"><ele>595.0</ele><time>2026-04-30T15:40:27.991Z</time></trkpt><trkpt lat="40.56876740669325" lon="9.142485361805562"><ele>591.6666666666667</ele><time>2026-04-30T15:40:28.991Z</time></trkpt><trkpt lat="40.5688886142459" lon="9.142280609779789"><ele>588.3333333333334</ele><time>2026-04-30T15:40:29.991Z</time></trkpt><trkpt lat="40.56899085341372" lon="9.142056187493703"><ele>585.0</ele><time>2026-04-30T15:40:30.991Z</time></trkpt><trkpt lat="40.56908393892639" lon="9.141822168554743"><ele>585.0</ele><time>2026-04-30T15:40:31.991Z</time></trkpt><trkpt lat="40.5691755983748" lon="9.141588816839754"><ele>585.0</ele><time>2026-04-30T15:40:32.991Z</time></trkpt><trkpt lat="40.56926746244708" lon="9.141354944176392"><ele>585.0</ele><time>2026-04-30T15:40:33.991Z</time></trkpt><trkpt lat="40.56935877461466" lon="9.141114252543424"><ele>585.0</ele><time>2026-04-30T15:40:34.991Z</time></trkpt><trkpt lat="40.569434140774426" lon="9.14086305054716"><ele>585.0</ele><time>2026-04-30T15:40:35.991Z</time></trkpt><trkpt lat="40.569490087272435" lon="9.14060676053308"><ele>585.0</ele><time>2026-04-30T15:40:36.991Z</time></trkpt><trkpt lat="40.56956083027671" lon="9.140360472428904"><ele>582.6666666666666</ele><time>2026-04-30T15:40:37.991Z</time></trkpt><trkpt lat="40.56963007490908" lon="9.140115358052093"><ele>580.3333333333333</ele><time>2026-04-30T15:40:38.991Z</time></trkpt><trkpt lat="40.5697019732492" lon="9.139871284418284"><ele>578.0</ele><time>2026-04-30T15:40:39.991Z</time></trkpt><trkpt lat="40.56977171147789" lon="9.139622799165831"><ele>578.0</ele><time>2026-04-30T15:40:40.991Z</time></trkpt><trkpt lat="40.56984063097237" lon="9.13937174325553"><ele>578.0</ele><time>2026-04-30T15:40:41.991Z</time></trkpt><trkpt lat="40.569910686504436" lon="9.139117119355603"><ele>578.0</ele><time>2026-04-30T15:40:42.991Z</time></trkpt><trkpt lat="40.569980468589826" lon="9.138858429223141"><ele>577.6666666666666</ele><time>2026-04-30T15:40:43.991Z</time></trkpt><trkpt lat="40.570062516095454" lon="9.13862335874782"><ele>577.3333333333334</ele><time>2026-04-30T15:40:44.992Z</time></trkpt><trkpt lat="40.570126356967556" lon="9.138391149255225"><ele>577.0</ele><time>2026-04-30T15:40:45.992Z</time></trkpt><trkpt lat="40.570187508651415" lon="9.138168721244824"><ele>576.0</ele><time>2026-04-30T15:40:46.992Z</time></trkpt><trkpt lat="40.570247517745614" lon="9.13795044917093"><ele>575.0</ele><time>2026-04-30T15:40:47.992Z</time></trkpt><trkpt lat="40.570302038074374" lon="9.137752141492262"><ele>574.0</ele><time>2026-04-30T15:40:48.992Z</time></trkpt><trkpt lat="40.57035176381397" lon="9.137571273218299"><ele>571.25</ele><time>2026-04-30T15:40:49.992Z</time></trkpt><trkpt lat="40.570396830517616" lon="9.137408999960027"><ele>568.5</ele><time>2026-04-30T15:40:50.992Z</time></trkpt><trkpt lat="40.570437391704225" lon="9.137263430100798"><ele>565.75</ele><time>2026-04-30T15:40:51.992Z</time></trkpt><trkpt lat="40.57047652078622" lon="9.137122985909608"><ele>563.0</ele><time>2026-04-30T15:40:52.992Z</time></trkpt><trkpt lat="40.5705104757988" lon="9.137001112758695"><ele>563.0</ele><time>2026-04-30T15:40:53.992Z</time></trkpt><trkpt lat="40.5705369350219" lon="9.136906143889673"><ele>563.0</ele><time>2026-04-30T15:40:54.992Z</time></trkpt><trkpt lat="40.57057845119674" lon="9.136757131817268"><ele>563.0</ele><time>2026-04-30T15:40:56.992Z</time></trkpt><trkpt lat="40.57070546122421" lon="9.136294038291235"><ele>563.25</ele><time>2026-04-30T15:40:57.992Z</time></trkpt><trkpt lat="40.57075792692509" lon="9.136108602305594"><ele>563.5</ele><time>2026-04-30T15:40:58.992Z</time></trkpt><trkpt lat="40.57081014816289" lon="9.13592599398859"><ele>563.75</ele><time>2026-04-30T15:40:59.992Z</time></trkpt><trkpt lat="40.570857824010574" lon="9.135763638422704"><ele>564.0</ele><time>2026-04-30T15:41:00.992Z</time></trkpt><trkpt lat="40.5708977082538" lon="9.135608830613803"><ele>565.0</ele><time>2026-04-30T15:41:01.992Z</time></trkpt><trkpt lat="40.570931476423034" lon="9.135470564853415"><ele>566.0</ele><time>2026-04-30T15:41:02.992Z</time></trkpt><trkpt lat="40.570950518189406" lon="9.135355939336314"><ele>567.0</ele><time>2026-04-30T15:41:03.992Z</time></trkpt><trkpt lat="40.570950247594034" lon="9.135238660581253"><ele>568.0</ele><time>2026-04-30T15:41:04.992Z</time></trkpt><trkpt lat="40.570932971974784" lon="9.135115668142845"><ele>569.0</ele><time>2026-04-30T15:41:05.992Z</time></trkpt><trkpt lat="40.57089800129909" lon="9.134995764459006"><ele>569.75</ele><time>2026-04-30T15:41:06.992Z</time></trkpt><trkpt lat="40.57084961350659" lon="9.13486522477742"><ele>570.5</ele><time>2026-04-30T15:41:07.992Z</time></trkpt><trkpt lat="40.57079861814909" lon="9.134709667228304"><ele>571.25</ele><time>2026-04-30T15:41:08.992Z</time></trkpt><trkpt lat="40.570753038175454" lon="9.134527824353674"><ele>572.0</ele><time>2026-04-30T15:41:09.992Z</time></trkpt><trkpt lat="40.570706210851675" lon="9.134326348287757"><ele>572.0</ele><time>2026-04-30T15:41:10.992Z</time></trkpt><trkpt lat="40.570663739341434" lon="9.134127819253093"><ele>572.0</ele><time>2026-04-30T15:41:11.992Z</time></trkpt><trkpt lat="40.57061974387725" lon="9.133933644778825"><ele>572.0</ele><time>2026-04-30T15:41:12.992Z</time></trkpt><trkpt lat="40.57057413722767" lon="9.133731008907759"><ele>573.0</ele><time>2026-04-30T15:41:13.992Z</time></trkpt><trkpt lat="40.57052662467086" lon="9.133537484925998"><ele>574.0</ele><time>2026-04-30T15:41:14.992Z</time></trkpt><trkpt lat="40.57047672056972" lon="9.133352447028585"><ele>575.0</ele><time>2026-04-30T15:41:15.992Z</time></trkpt><trkpt lat="40.57042965502761" lon="9.133163111271074"><ele>576.75</ele><time>2026-04-30T15:41:16.992Z</time></trkpt><trkpt lat="40.57038744466095" lon="9.132977461166663"><ele>578.5</ele><time>2026-04-30T15:41:17.992Z</time></trkpt><trkpt lat="40.570347846752455" lon="9.132788209621536"><ele>580.25</ele><time>2026-04-30T15:41:18.992Z</time></trkpt><trkpt lat="40.57031201808709" lon="9.1326040611343"><ele>582.0</ele><time>2026-04-30T15:41:19.992Z</time></trkpt><trkpt lat="40.570281242580776" lon="9.132429715047815"><ele>577.6666666666666</ele><time>2026-04-30T15:41:20.992Z</time></trkpt><trkpt lat="40.570264965688324" lon="9.132242528478589"><ele>573.3333333333333</ele><time>2026-04-30T15:41:21.992Z</time></trkpt><trkpt lat="40.570242520849256" lon="9.13204928019572"><ele>569.0</ele><time>2026-04-30T15:41:22.992Z</time></trkpt><trkpt lat="40.570225559535" lon="9.131839544499364"><ele>569.0</ele><time>2026-04-30T15:41:23.992Z</time></trkpt><trkpt lat="40.57021078435148" lon="9.131618356322653"><ele>569.0</ele><time>2026-04-30T15:41:24.992Z</time></trkpt><trkpt lat="40.57019599568421" lon="9.13139639613879"><ele>569.0</ele><time>2026-04-30T15:41:25.992Z</time></trkpt><trkpt lat="40.5701804091265" lon="9.131157750715497"><ele>569.6666666666666</ele><time>2026-04-30T15:41:26.992Z</time></trkpt><trkpt lat="40.570164823500946" lon="9.130919119549299"><ele>570.3333333333334</ele><time>2026-04-30T15:41:27.992Z</time></trkpt><trkpt lat="40.57014825680001" lon="9.130665828075294"><ele>571.0</ele><time>2026-04-30T15:41:28.992Z</time></trkpt><trkpt lat="40.57013148627063" lon="9.130411431677084"><ele>571.0</ele><time>2026-04-30T15:41:29.992Z</time></trkpt><trkpt lat="40.57011413700865" lon="9.130148256300476"><ele>571.0</ele><time>2026-04-30T15:41:30.992Z</time></trkpt><trkpt lat="40.570096390908866" lon="9.129878590379976"><ele>571.0</ele><time>2026-04-30T15:41:31.992Z</time></trkpt><trkpt lat="40.57007826654791" lon="9.129606171588"><ele>571.0</ele><time>2026-04-30T15:41:32.992Z</time></trkpt><trkpt lat="40.57005808848013" lon="9.129329911636297"><ele>571.0</ele><time>2026-04-30T15:41:33.992Z</time></trkpt><trkpt lat="40.57002326699776" lon="9.129058293518835"><ele>571.0</ele><time>2026-04-30T15:41:34.992Z</time></trkpt><trkpt lat="40.57000048065424" lon="9.128782506940864"><ele>571.0</ele><time>2026-04-30T15:41:35.992Z</time></trkpt><trkpt lat="40.56997709131396" lon="9.128510476123823"><ele>571.0</ele><time>2026-04-30T15:41:36.992Z</time></trkpt><trkpt lat="40.569949595231954" lon="9.128230080891665"><ele>571.0</ele><time>2026-04-30T15:41:37.992Z</time></trkpt><trkpt lat="40.56992259119108" lon="9.127950394918884"><ele>572.0</ele><time>2026-04-30T15:41:38.992Z</time></trkpt><trkpt lat="40.56989665903331" lon="9.12766823366158"><ele>573.0</ele><time>2026-04-30T15:41:39.992Z</time></trkpt><trkpt lat="40.56987165676557" lon="9.127389371772484"><ele>574.0</ele><time>2026-04-30T15:41:40.992Z</time></trkpt><trkpt lat="40.56987359983443" lon="9.127125294575494"><ele>574.6666666666667</ele><time>2026-04-30T15:41:41.992Z</time></trkpt><trkpt lat="40.56984293685458" lon="9.126846475844783"><ele>575.3333333333334</ele><time>2026-04-30T15:41:42.992Z</time></trkpt><trkpt lat="40.56981774445284" lon="9.126577083423468"><ele>576.0</ele><time>2026-04-30T15:41:43.992Z</time></trkpt><trkpt lat="40.56979625160187" lon="9.126302247848512"><ele>577.0</ele><time>2026-04-30T15:41:44.992Z</time></trkpt><trkpt lat="40.569775026147326" lon="9.126032047592426"><ele>578.0</ele><time>2026-04-30T15:41:45.992Z</time></trkpt><trkpt lat="40.56975276284099" lon="9.12575974992323"><ele>579.0</ele><time>2026-04-30T15:41:46.992Z</time></trkpt><trkpt lat="40.56972300326315" lon="9.125490829146369"><ele>580.6666666666666</ele><time>2026-04-30T15:41:47.992Z</time></trkpt><trkpt lat="40.5696977598717" lon="9.125225226456374"><ele>582.3333333333333</ele><time>2026-04-30T15:41:48.992Z</time></trkpt><trkpt lat="40.56967633260898" lon="9.1249603197086"><ele>584.0</ele><time>2026-04-30T15:41:49.992Z</time></trkpt><trkpt lat="40.56966219575165" lon="9.124689599795225"><ele>585.3333333333333</ele><time>2026-04-30T15:41:50.992Z</time></trkpt><trkpt lat="40.56965569954798" lon="9.124416737446492"><ele>586.6666666666666</ele><time>2026-04-30T15:41:51.991Z</time></trkpt><trkpt lat="40.569651943222844" lon="9.124136260060206"><ele>588.0</ele><time>2026-04-30T15:41:52.991Z</time></trkpt><trkpt lat="40.56964916591614" lon="9.123851095964236"><ele>588.0</ele><time>2026-04-30T15:41:53.991Z</time></trkpt><trkpt lat="40.56965210565461" lon="9.123563564855989"><ele>588.0</ele><time>2026-04-30T15:41:54.991Z</time></trkpt><trkpt lat="40.569649251744245" lon="9.123266985677235"><ele>588.0</ele><time>2026-04-30T15:41:55.99Z</time></trkpt><trkpt lat="40.569646050603616" lon="9.122972359882732"><ele>587.3333333333334</ele><time>2026-04-30T15:41:56.99Z</time></trkpt><trkpt lat="40.569639990259795" lon="9.122680595338464"><ele>586.6666666666667</ele><time>2026-04-30T15:41:57.991Z</time></trkpt><trkpt lat="40.56963864935804" lon="9.122387181441304"><ele>586.0</ele><time>2026-04-30T15:41:58.99Z</time></trkpt><trkpt lat="40.56964049283937" lon="9.12209921049481"><ele>588.3333333333334</ele><time>2026-04-30T15:41:59.99Z</time></trkpt><trkpt lat="40.569640300972566" lon="9.121807703072486"><ele>590.6666666666666</ele><time>2026-04-30T15:42:00.99Z</time></trkpt><trkpt lat="40.56963492423457" lon="9.121525673787641"><ele>593.0</ele><time>2026-04-30T15:42:01.991Z</time></trkpt><trkpt lat="40.56963595444179" lon="9.121237378717709"><ele>594.3333333333333</ele><time>2026-04-30T15:42:02.991Z</time></trkpt><trkpt lat="40.56963001003087" lon="9.120952270712301"><ele>595.6666666666666</ele><time>2026-04-30T15:42:03.99Z</time></trkpt><trkpt lat="40.5696238276492" lon="9.12066288401648"><ele>597.0</ele><time>2026-04-30T15:42:04.99Z</time></trkpt><trkpt lat="40.569616073987085" lon="9.120384843708825"><ele>598.3333333333334</ele><time>2026-04-30T15:42:05.99Z</time></trkpt><trkpt lat="40.56961796468667" lon="9.12009485288271"><ele>599.6666666666667</ele><time>2026-04-30T15:42:06.99Z</time></trkpt><trkpt lat="40.56961742053199" lon="9.119818374685455"><ele>601.0</ele><time>2026-04-30T15:42:07.99Z</time></trkpt><trkpt lat="40.569618480147945" lon="9.119554203512386"><ele>602.0</ele><time>2026-04-30T15:42:08.99Z</time></trkpt><trkpt lat="40.56960168648705" lon="9.119316513679186"><ele>603.0</ele><time>2026-04-30T15:42:09.99Z</time></trkpt><trkpt lat="40.56957538015605" lon="9.119091479149215"><ele>604.0</ele><time>2026-04-30T15:42:10.99Z</time></trkpt><trkpt lat="40.56953993737692" lon="9.11885211652889"><ele>602.6666666666667</ele><time>2026-04-30T15:42:11.99Z</time></trkpt><trkpt lat="40.56949070872285" lon="9.118615714685847"><ele>601.3333333333334</ele><time>2026-04-30T15:42:12.99Z</time></trkpt><trkpt lat="40.56944550251195" lon="9.11839119137759"><ele>600.0</ele><time>2026-04-30T15:42:13.99Z</time></trkpt><trkpt lat="40.56940015920328" lon="9.118159893031363"><ele>599.3333333333334</ele><time>2026-04-30T15:42:14.99Z</time></trkpt><trkpt lat="40.56935715010117" lon="9.117957997477856"><ele>598.6666666666667</ele><time>2026-04-30T15:42:15.99Z</time></trkpt><trkpt lat="40.56931861180072" lon="9.117767670817784"><ele>598.0</ele><time>2026-04-30T15:42:16.99Z</time></trkpt><trkpt lat="40.569280781806086" lon="9.117580289818923"><ele>598.0</ele><time>2026-04-30T15:42:17.99Z</time></trkpt><trkpt lat="40.569255741126156" lon="9.117416379213308"><ele>598.0</ele><time>2026-04-30T15:42:18.99Z</time></trkpt><trkpt lat="40.56922390298262" lon="9.117277369018348"><ele>598.0</ele><time>2026-04-30T15:42:19.99Z</time></trkpt><trkpt lat="40.56920070111229" lon="9.117163669059629"><ele>598.0</ele><time>2026-04-30T15:42:20.99Z</time></trkpt><trkpt lat="40.56918228148207" lon="9.117079920518488"><ele>598.0</ele><time>2026-04-30T15:42:21.99Z</time></trkpt><trkpt lat="40.56920597294145" lon="9.116977279050813"><ele>598.6</ele><time>2026-04-30T15:42:23.99Z</time></trkpt><trkpt lat="40.56930730032383" lon="9.11693618148618"><ele>599.1999999999999</ele><time>2026-04-30T15:42:25.99Z</time></trkpt><trkpt lat="40.56936958152741" lon="9.116907243919584"><ele>599.8</ele><time>2026-04-30T15:42:26.99Z</time></trkpt><trkpt lat="40.56944705036016" lon="9.116876876895516"><ele>600.4</ele><time>2026-04-30T15:42:27.99Z</time></trkpt><trkpt lat="40.56954022982823" lon="9.116831435091457"><ele>601.0</ele><time>2026-04-30T15:42:28.99Z</time></trkpt><trkpt lat="40.56965991752103" lon="9.116806708732975"><ele>602.25</ele><time>2026-04-30T15:42:29.99Z</time></trkpt><trkpt lat="40.56978975401484" lon="9.11678488120342"><ele>603.5</ele><time>2026-04-30T15:42:30.99Z</time></trkpt><trkpt lat="40.569933203692536" lon="9.116766246169727"><ele>604.75</ele><time>2026-04-30T15:42:31.99Z</time></trkpt><trkpt lat="40.570080409029714" lon="9.11675950185027"><ele>606.0</ele><time>2026-04-30T15:42:32.991Z</time></trkpt><trkpt lat="40.570235474500954" lon="9.11676122565949"><ele>608.6666666666666</ele><time>2026-04-30T15:42:33.991Z</time></trkpt><trkpt lat="40.57040035499075" lon="9.116763903199772"><ele>611.3333333333333</ele><time>2026-04-30T15:42:34.991Z</time></trkpt><trkpt lat="40.57058090271797" lon="9.116764900896174"><ele>614.0</ele><time>2026-04-30T15:42:35.991Z</time></trkpt><trkpt lat="40.57075540735883" lon="9.11676825816774"><ele>614.0</ele><time>2026-04-30T15:42:36.991Z</time></trkpt><trkpt lat="40.57091518329503" lon="9.116766147585087"><ele>614.0</ele><time>2026-04-30T15:42:37.991Z</time></trkpt><trkpt lat="40.571075206451404" lon="9.116760983904049"><ele>614.0</ele><time>2026-04-30T15:42:38.991Z</time></trkpt><trkpt lat="40.57124081435553" lon="9.116754021847651"><ele>615.0</ele><time>2026-04-30T15:42:39.991Z</time></trkpt><trkpt lat="40.57140832438666" lon="9.116743430169713"><ele>616.0</ele><time>2026-04-30T15:42:40.991Z</time></trkpt><trkpt lat="40.57158720587638" lon="9.116723872730839"><ele>617.0</ele><time>2026-04-30T15:42:41.991Z</time></trkpt><trkpt lat="40.57176828295347" lon="9.116703859393432"><ele>617.0</ele><time>2026-04-30T15:42:42.991Z</time></trkpt><trkpt lat="40.57195224033366" lon="9.11668609386138"><ele>617.0</ele><time>2026-04-30T15:42:43.991Z</time></trkpt><trkpt lat="40.57213615160478" lon="9.116662842887077"><ele>617.0</ele><time>2026-04-30T15:42:44.991Z</time></trkpt><trkpt lat="40.572312123281385" lon="9.116632471260612"><ele>617.6666666666666</ele><time>2026-04-30T15:42:45.991Z</time></trkpt><trkpt lat="40.57248576831475" lon="9.116582608065132"><ele>618.3333333333334</ele><time>2026-04-30T15:42:46.991Z</time></trkpt><trkpt lat="40.57266683910041" lon="9.116517887044816"><ele>619.0</ele><time>2026-04-30T15:42:47.991Z</time></trkpt><trkpt lat="40.57284968616198" lon="9.116437520167851"><ele>622.3333333333334</ele><time>2026-04-30T15:42:48.991Z</time></trkpt><trkpt lat="40.573034658200704" lon="9.116357490447479"><ele>625.6666666666666</ele><time>2026-04-30T15:42:49.991Z</time></trkpt><trkpt lat="40.57321941993009" lon="9.116277983424245"><ele>629.0</ele><time>2026-04-30T15:42:50.991Z</time></trkpt><trkpt lat="40.5734056713634" lon="9.116195183956611"><ele>629.0</ele><time>2026-04-30T15:42:51.991Z</time></trkpt><trkpt lat="40.57359887388799" lon="9.116113026943074"><ele>629.0</ele><time>2026-04-30T15:42:52.991Z</time></trkpt><trkpt lat="40.573811890567775" lon="9.11602473960685"><ele>629.0</ele><time>2026-04-30T15:42:53.991Z</time></trkpt><trkpt lat="40.574002949403024" lon="9.115940557045889"><ele>632.6666666666666</ele><time>2026-04-30T15:42:54.991Z</time></trkpt><trkpt lat="40.57417686431042" lon="9.115872101409739"><ele>636.3333333333334</ele><time>2026-04-30T15:42:55.991Z</time></trkpt><trkpt lat="40.5743433705369" lon="9.115808847378096"><ele>640.0</ele><time>2026-04-30T15:42:56.991Z</time></trkpt><trkpt lat="40.574492703052904" lon="9.11574028615796"><ele>642.75</ele><time>2026-04-30T15:42:57.991Z</time></trkpt><trkpt lat="40.57463761414639" lon="9.115666607667888"><ele>645.5</ele><time>2026-04-30T15:42:58.991Z</time></trkpt><trkpt lat="40.574766425302435" lon="9.115573966037351"><ele>648.25</ele><time>2026-04-30T15:42:59.991Z</time></trkpt><trkpt lat="40.57489093886785" lon="9.115471911539228"><ele>651.0</ele><time>2026-04-30T15:43:00.991Z</time></trkpt><trkpt lat="40.574998957455165" lon="9.115336757165817"><ele>651.0</ele><time>2026-04-30T15:43:01.991Z</time></trkpt><trkpt lat="40.57512629472989" lon="9.115195826035698"><ele>651.0</ele><time>2026-04-30T15:43:02.991Z</time></trkpt><trkpt lat="40.57526033746675" lon="9.11506627647035"><ele>651.0</ele><time>2026-04-30T15:43:03.991Z</time></trkpt><trkpt lat="40.57539800642089" lon="9.11494466543304"><ele>653.3333333333334</ele><time>2026-04-30T15:43:04.991Z</time></trkpt><trkpt lat="40.57553829902076" lon="9.114831011828409"><ele>655.6666666666667</ele><time>2026-04-30T15:43:05.991Z</time></trkpt><trkpt lat="40.57568841101803" lon="9.114714465743544"><ele>658.0</ele><time>2026-04-30T15:43:06.991Z</time></trkpt><trkpt lat="40.575843960430554" lon="9.114609322753557"><ele>658.0</ele><time>2026-04-30T15:43:07.991Z</time></trkpt><trkpt lat="40.57601611598839" lon="9.114527550056382"><ele>658.0</ele><time>2026-04-30T15:43:08.991Z</time></trkpt><trkpt lat="40.576172602214264" lon="9.114415311012538"><ele>658.0</ele><time>2026-04-30T15:43:09.991Z</time></trkpt><trkpt lat="40.576327291916016" lon="9.11433197642607"><ele>661.0</ele><time>2026-04-30T15:43:10.991Z</time></trkpt><trkpt lat="40.57646140163074" lon="9.114267312152643"><ele>664.0</ele><time>2026-04-30T15:43:11.991Z</time></trkpt><trkpt lat="40.57658502638253" lon="9.114228078424206"><ele>667.0</ele><time>2026-04-30T15:43:12.991Z</time></trkpt><trkpt lat="40.57670761953321" lon="9.114222002437018"><ele>670.0</ele><time>2026-04-30T15:43:13.991Z</time></trkpt><trkpt lat="40.57684086377141" lon="9.114226340486413"><ele>670.0</ele><time>2026-04-30T15:43:14.991Z</time></trkpt><trkpt lat="40.57698257330466" lon="9.114242660793286"><ele>670.0</ele><time>2026-04-30T15:43:15.991Z</time></trkpt><trkpt lat="40.5771265531055" lon="9.114260961175198"><ele>670.0</ele><time>2026-04-30T15:43:16.991Z</time></trkpt><trkpt lat="40.57727618318805" lon="9.114283786299056"><ele>670.0</ele><time>2026-04-30T15:43:17.991Z</time></trkpt><trkpt lat="40.57741973305529" lon="9.114310268893387"><ele>672.75</ele><time>2026-04-30T15:43:18.991Z</time></trkpt><trkpt lat="40.577561667625915" lon="9.114347896554191"><ele>675.5</ele><time>2026-04-30T15:43:19.991Z</time></trkpt><trkpt lat="40.57769582691546" lon="9.114402733968511"><ele>678.25</ele><time>2026-04-30T15:43:20.991Z</time></trkpt><trkpt lat="40.57783846783731" lon="9.114478820435817"><ele>681.0</ele><time>2026-04-30T15:43:21.991Z</time></trkpt><trkpt lat="40.57797330410085" lon="9.114568676977633"><ele>683.5</ele><time>2026-04-30T15:43:22.991Z</time></trkpt><trkpt lat="40.57812139435947" lon="9.114621021191514"><ele>686.0</ele><time>2026-04-30T15:43:23.991Z</time></trkpt><trkpt lat="40.578254048242705" lon="9.114683701365557"><ele>688.5</ele><time>2026-04-30T15:43:24.991Z</time></trkpt><trkpt lat="40.57838142423272" lon="9.114753071979912"><ele>691.0</ele><time>2026-04-30T15:43:25.991Z</time></trkpt><trkpt lat="40.57852021501814" lon="9.114777796858357"><ele>691.0</ele><time>2026-04-30T15:43:26.991Z</time></trkpt><trkpt lat="40.57865677367012" lon="9.11481064292428"><ele>691.0</ele><time>2026-04-30T15:43:27.991Z</time></trkpt><trkpt lat="40.57878726394196" lon="9.114866336005132"><ele>691.0</ele><time>2026-04-30T15:43:28.991Z</time></trkpt><trkpt lat="40.57892111081966" lon="9.114902859869288"><ele>691.0</ele><time>2026-04-30T15:43:29.991Z</time></trkpt><trkpt lat="40.579046202261154" lon="9.114934873178477"><ele>693.8</ele><time>2026-04-30T15:43:30.991Z</time></trkpt><trkpt lat="40.57914864215174" lon="9.11495798738766"><ele>696.5999999999999</ele><time>2026-04-30T15:43:31.991Z</time></trkpt><trkpt lat="40.57925928251387" lon="9.114966741987443"><ele>699.4</ele><time>2026-04-30T15:43:32.991Z</time></trkpt><trkpt lat="40.57936951896717" lon="9.114932747818361"><ele>702.2</ele><time>2026-04-30T15:43:33.991Z</time></trkpt><trkpt lat="40.579476207073775" lon="9.114871690460694"><ele>705.0</ele><time>2026-04-30T15:43:34.991Z</time></trkpt><trkpt lat="40.579578378388725" lon="9.11479480329664"><ele>710.0</ele><time>2026-04-30T15:43:35.991Z</time></trkpt><trkpt lat="40.57967761680484" lon="9.11470143661782"><ele>715.0</ele><time>2026-04-30T15:43:36.991Z</time></trkpt><trkpt lat="40.57977333873722" lon="9.11459173481929"><ele>720.0</ele><time>2026-04-30T15:43:37.991Z</time></trkpt><trkpt lat="40.579861995196815" lon="9.114486243295804"><ele>725.0</ele><time>2026-04-30T15:43:38.991Z</time></trkpt><trkpt lat="40.5799605678522" lon="9.114368972120609"><ele>725.0</ele><time>2026-04-30T15:43:39.991Z</time></trkpt><trkpt lat="40.580055965548716" lon="9.114255376977004"><ele>725.0</ele><time>2026-04-30T15:43:40.991Z</time></trkpt><trkpt lat="40.58015662765613" lon="9.114147717006057"><ele>725.0</ele><time>2026-04-30T15:43:41.991Z</time></trkpt><trkpt lat="40.58024060718108" lon="9.114080949505025"><ele>725.0</ele><time>2026-04-30T15:43:42.991Z</time></trkpt><trkpt lat="40.58032382924602" lon="9.114021814071316"><ele>728.5</ele><time>2026-04-30T15:43:43.991Z</time></trkpt><trkpt lat="40.58041576597344" lon="9.113926648730624"><ele>732.0</ele><time>2026-04-30T15:43:44.991Z</time></trkpt><trkpt lat="40.58047448440607" lon="9.113821571578171"><ele>735.5</ele><time>2026-04-30T15:43:45.991Z</time></trkpt><trkpt lat="40.58054326726553" lon="9.113710598860006"><ele>739.0</ele><time>2026-04-30T15:43:46.991Z</time></trkpt><trkpt lat="40.58062132132611" lon="9.113581710942395"><ele>739.0</ele><time>2026-04-30T15:43:47.991Z</time></trkpt><trkpt lat="40.58068053887644" lon="9.113478731415656"><ele>739.0</ele><time>2026-04-30T15:43:48.991Z</time></trkpt><trkpt lat="40.580726433658896" lon="9.113398497455403"><ele>739.0</ele><time>2026-04-30T15:43:49.991Z</time></trkpt><trkpt lat="40.58076630755149" lon="9.113296119053276"><ele>739.0</ele><time>2026-04-30T15:43:51.991Z</time></trkpt><trkpt lat="40.58081667425679" lon="9.113239704168903"><ele>739.0</ele><time>2026-04-30T15:43:55.991Z</time></trkpt><trkpt lat="40.58086794529205" lon="9.113149484140548"><ele>739.0</ele><time>2026-04-30T15:44:01.99Z</time></trkpt><trkpt lat="40.58091195304647" lon="9.113064287016453"><ele>739.3333333333334</ele><time>2026-04-30T15:44:03.99Z</time></trkpt><trkpt lat="40.58095520575292" lon="9.112977462514564"><ele>739.6666666666667</ele><time>2026-04-30T15:44:05.99Z</time></trkpt><trkpt lat="40.58099695796087" lon="9.112892407530179"><ele>740.0</ele><time>2026-04-30T15:44:07.99Z</time></trkpt><trkpt lat="40.581059600499806" lon="9.112759818337027"><ele>740.3333333333334</ele><time>2026-04-30T15:44:09.99Z</time></trkpt><trkpt lat="40.5810956009895" lon="9.112683384145402"><ele>740.6666666666666</ele><time>2026-04-30T15:44:10.99Z</time></trkpt><trkpt lat="40.58114007888955" lon="9.11258895112622"><ele>741.0</ele><time>2026-04-30T15:44:11.99Z</time></trkpt><trkpt lat="40.581181369235175" lon="9.112486456402532"><ele>741.8333333333334</ele><time>2026-04-30T15:44:12.99Z</time></trkpt><trkpt lat="40.58117597920055" lon="9.112355991862275"><ele>742.6666666666666</ele><time>2026-04-30T15:44:13.99Z</time></trkpt><trkpt lat="40.58122351208642" lon="9.112271654401981"><ele>743.5</ele><time>2026-04-30T15:44:14.99Z</time></trkpt><trkpt lat="40.58126980979951" lon="9.11221123870845"><ele>744.3333333333333</ele><time>2026-04-30T15:44:15.99Z</time></trkpt><trkpt lat="40.581298683835385" lon="9.112134200379206"><ele>745.1666666666666</ele><time>2026-04-30T15:44:16.99Z</time></trkpt><trkpt lat="40.581326058508594" lon="9.112042806851102"><ele>746.0</ele><time>2026-04-30T15:44:17.99Z</time></trkpt><trkpt lat="40.58135489246382" lon="9.11194986295574"><ele>750.5</ele><time>2026-04-30T15:44:18.99Z</time></trkpt><trkpt lat="40.581397184994074" lon="9.111862946939755"><ele>755.0</ele><time>2026-04-30T15:44:19.99Z</time></trkpt><trkpt lat="40.58141643343919" lon="9.111767520808348"><ele>759.5</ele><time>2026-04-30T15:44:20.99Z</time></trkpt><trkpt lat="40.58144419397923" lon="9.112104087940093"><ele>764.0</ele><time>2026-04-30T15:44:21.99Z</time></trkpt><trkpt lat="40.581357036257316" lon="9.112111777217946"><ele>764.0</ele><time>2026-04-30T15:44:27.99Z</time></trkpt><trkpt lat="40.58135903617848" lon="9.112194713216393"><ele>764.0</ele><time>2026-04-30T15:44:36.99Z</time></trkpt><trkpt lat="40.581340293842686" lon="9.112326732684918"><ele>764.0</ele><time>2026-04-30T15:44:38.99Z</time></trkpt><trkpt lat="40.58132247440197" lon="9.112471344874894"><ele>764.0</ele><time>2026-04-30T15:44:40.99Z</time></trkpt><trkpt lat="40.58131334533679" lon="9.112567199072073"><ele>764.0</ele><time>2026-04-30T15:44:42.99Z</time></trkpt><trkpt lat="40.58130203097667" lon="9.112693142934146"><ele>764.0</ele><time>2026-04-30T15:44:44.99Z</time></trkpt><trkpt lat="40.58129989903262" lon="9.112792373328707"><ele>752.5</ele><time>2026-04-30T15:44:46.99Z</time></trkpt><trkpt lat="40.580919762847564" lon="9.112841005453886"><ele>741.0</ele><time>2026-04-30T15:45:15.991Z</time></trkpt><trkpt lat="40.58081339388946" lon="9.112755167216521"><ele>741.0</ele><time>2026-04-30T15:45:17.991Z</time></trkpt><trkpt lat="40.580746227672414" lon="9.112708043181033"><ele>741.0</ele><time>2026-04-30T15:45:18.991Z</time></trkpt><trkpt lat="40.58066986019837" lon="9.112662031813999"><ele>741.0</ele><time>2026-04-30T15:45:19.991Z</time></trkpt><trkpt lat="40.58059630770617" lon="9.112618301904096"><ele>741.0</ele><time>2026-04-30T15:45:20.991Z</time></trkpt><trkpt lat="40.580533347952574" lon="9.112584900998874"><ele>741.0</ele><time>2026-04-30T15:45:21.991Z</time></trkpt><trkpt lat="40.58044288827844" lon="9.112518877278164"><ele>741.0</ele><time>2026-04-30T15:45:23.991Z</time></trkpt><trkpt lat="40.580378099974425" lon="9.112494509933098"><ele>741.0</ele><time>2026-04-30T15:45:27.991Z</time></trkpt><trkpt lat="40.58044457930397" lon="9.112532962074463"><ele>741.0</ele><time>2026-04-30T15:45:31.991Z</time></trkpt><trkpt lat="40.58054347940243" lon="9.112676262690412"><ele>741.0</ele><time>2026-04-30T15:45:33.991Z</time></trkpt><trkpt lat="40.580641879659304" lon="9.112694070283034"><ele>741.0</ele><time>2026-04-30T15:45:34.991Z</time></trkpt><trkpt lat="40.58071803574812" lon="9.112729158871726"><ele>741.0</ele><time>2026-04-30T15:45:35.991Z</time></trkpt><trkpt lat="40.58078729798562" lon="9.112761397101435"><ele>741.0</ele><time>2026-04-30T15:45:36.991Z</time></trkpt><trkpt lat="40.580855306777906" lon="9.112803296331013"><ele>741.0</ele><time>2026-04-30T15:45:37.991Z</time></trkpt><trkpt lat="40.58091723156274" lon="9.112851204718115"><ele>741.0</ele><time>2026-04-30T15:45:39.991Z</time></trkpt><trkpt lat="40.58090301733364" lon="9.112962394892028"><ele>741.0</ele><time>2026-04-30T15:45:41.991Z</time></trkpt><trkpt lat="40.580863264926386" lon="9.113042192782476"><ele>741.0</ele><time>2026-04-30T15:45:42.991Z</time></trkpt><trkpt lat="40.5807934824675" lon="9.11316197219013"><ele>741.0</ele><time>2026-04-30T15:45:44.991Z</time></trkpt><trkpt lat="40.58074976349108" lon="9.113231200829043"><ele>740.5999999999999</ele><time>2026-04-30T15:45:45.991Z</time></trkpt><trkpt lat="40.58067160031983" lon="9.113360888004639"><ele>740.2</ele><time>2026-04-30T15:45:47.991Z</time></trkpt><trkpt lat="40.58062349014191" lon="9.113445082262823"><ele>739.8</ele><time>2026-04-30T15:45:48.991Z</time></trkpt><trkpt lat="40.580576878019286" lon="9.11355014831761"><ele>739.4000000000001</ele><time>2026-04-30T15:45:49.991Z</time></trkpt><trkpt lat="40.580506411943546" lon="9.113631743615036"><ele>739.0</ele><time>2026-04-30T15:45:50.991Z</time></trkpt><trkpt lat="40.580459883340865" lon="9.113741222370571"><ele>739.0</ele><time>2026-04-30T15:45:51.991Z</time></trkpt><trkpt lat="40.5803942774812" lon="9.113813551119836"><ele>739.0</ele><time>2026-04-30T15:45:52.991Z</time></trkpt><trkpt lat="40.580353005136594" lon="9.113893025613038"><ele>739.0</ele><time>2026-04-30T15:45:53.991Z</time></trkpt><trkpt lat="40.58029199625817" lon="9.114008404826032"><ele>739.0</ele><time>2026-04-30T15:45:55.991Z</time></trkpt><trkpt lat="40.58024254721593" lon="9.114146273292391"><ele>739.0</ele><time>2026-04-30T15:45:57.991Z</time></trkpt><trkpt lat="40.58019953542439" lon="9.114225932780533"><ele>736.6666666666667</ele><time>2026-04-30T15:45:58.991Z</time></trkpt><trkpt lat="40.58015445864303" lon="9.114373711181296"><ele>734.3333333333334</ele><time>2026-04-30T15:46:00.991Z</time></trkpt><trkpt lat="40.580147715917825" lon="9.11451635515999"><ele>732.0</ele><time>2026-04-30T15:46:02.991Z</time></trkpt><trkpt lat="40.580184281456965" lon="9.11459354116521"><ele>729.6666666666666</ele><time>2026-04-30T15:46:03.99Z</time></trkpt><trkpt lat="40.58018823685441" lon="9.11468837166974"><ele>727.3333333333333</ele><time>2026-04-30T15:46:04.99Z</time></trkpt><trkpt lat="40.58021023216207" lon="9.114768501575552"><ele>725.0</ele><time>2026-04-30T15:46:05.99Z</time></trkpt><trkpt lat="40.58024442984597" lon="9.114886975570869"><ele>725.0</ele><time>2026-04-30T15:46:07.99Z</time></trkpt><trkpt lat="40.5802892799838" lon="9.115024865682571"><ele>725.0</ele><time>2026-04-30T15:46:09.991Z</time></trkpt><trkpt lat="40.580323645592706" lon="9.115167627062037"><ele>725.0</ele><time>2026-04-30T15:46:11.991Z</time></trkpt><trkpt lat="40.58034662164834" lon="9.115274644057761"><ele>725.0</ele><time>2026-04-30T15:46:13.989Z</time></trkpt><trkpt lat="40.58037826982298" lon="9.115372855574273"><ele>725.0</ele><time>2026-04-30T15:46:39.99Z</time></trkpt><trkpt lat="40.580252298271866" lon="9.115383370147569"><ele>725.0</ele><time>2026-04-30T15:46:43.99Z</time></trkpt><trkpt lat="40.580186044569125" lon="9.115402759235522"><ele>725.0</ele><time>2026-04-30T15:46:44.99Z</time></trkpt><trkpt lat="40.580118766100306" lon="9.1154188194539"><ele>725.0</ele><time>2026-04-30T15:46:45.99Z</time></trkpt><trkpt lat="40.58005329077351" lon="9.115431288726631"><ele>725.0</ele><time>2026-04-30T15:46:47.99Z</time></trkpt><trkpt lat="40.57999180884626" lon="9.115387017692802"><ele>725.0</ele><time>2026-04-30T15:46:50.99Z</time></trkpt><trkpt lat="40.58001055462624" lon="9.115473624661846"><ele>725.0</ele><time>2026-04-30T16:26:47Z</time></trkpt><trkpt lat="40.58008752614518" lon="9.115488567647017"><ele>725.0</ele><time>2026-04-30T16:26:50Z</time></trkpt><trkpt lat="40.580189746506946" lon="9.115458240105454"><ele>725.0</ele><time>2026-04-30T16:26:52Z</time></trkpt><trkpt lat="40.580278167368284" lon="9.115408077789688"><ele>725.0</ele><time>2026-04-30T16:26:54Z</time></trkpt><trkpt lat="40.58030539856457" lon="9.115283996865422"><ele>725.0</ele><time>2026-04-30T16:26:56Z</time></trkpt><trkpt lat="40.58030843929907" lon="9.115201198822795"><ele>725.0</ele><time>2026-04-30T16:26:57Z</time></trkpt><trkpt lat="40.580298430866605" lon="9.11511666626798"><ele>725.0</ele><time>2026-04-30T16:26:58Z</time></trkpt><trkpt lat="40.5802644417973" lon="9.115021815281576"><ele>725.0</ele><time>2026-04-30T16:26:59Z</time></trkpt><trkpt lat="40.5802455464156" lon="9.114928835727543"><ele>725.0</ele><time>2026-04-30T16:27:00Z</time></trkpt><trkpt lat="40.58021540346124" lon="9.114833669855438"><ele>725.0</ele><time>2026-04-30T16:27:01Z</time></trkpt><trkpt lat="40.580193917266" lon="9.114740671613589"><ele>725.0</ele><time>2026-04-30T16:27:02Z</time></trkpt><trkpt lat="40.580184021305186" lon="9.114654270689698"><ele>725.0</ele><time>2026-04-30T16:27:03Z</time></trkpt><trkpt lat="40.580172554184514" lon="9.114563009930439"><ele>725.0</ele><time>2026-04-30T16:27:04Z</time></trkpt><trkpt lat="40.58017491650153" lon="9.114472063708096"><ele>725.0</ele><time>2026-04-30T16:27:05Z</time></trkpt><trkpt lat="40.58018325946137" lon="9.114388286259715"><ele>725.0</ele><time>2026-04-30T16:27:06Z</time></trkpt><trkpt lat="40.58019936092872" lon="9.114299148073915"><ele>725.0</ele><time>2026-04-30T16:27:07Z</time></trkpt><trkpt lat="40.58023574773106" lon="9.114201595316834"><ele>725.0</ele><time>2026-04-30T16:27:08Z</time></trkpt><trkpt lat="40.58028907306388" lon="9.114108916188401"><ele>725.0</ele><time>2026-04-30T16:27:09Z</time></trkpt><trkpt lat="40.58033144863148" lon="9.114036100443858"><ele>725.0</ele><time>2026-04-30T16:27:10Z</time></trkpt><trkpt lat="40.580385709261385" lon="9.113950876968946"><ele>725.0</ele><time>2026-04-30T16:27:11Z</time></trkpt><trkpt lat="40.58043996027766" lon="9.113849851926716"><ele>725.0</ele><time>2026-04-30T16:27:12Z</time></trkpt><trkpt lat="40.580511585363084" lon="9.113734275195165"><ele>727.8</ele><time>2026-04-30T16:27:13Z</time></trkpt><trkpt lat="40.58058787671449" lon="9.113621701479957"><ele>730.6</ele><time>2026-04-30T16:27:14Z</time></trkpt><trkpt lat="40.58066011435062" lon="9.113491032227618"><ele>733.4000000000001</ele><time>2026-04-30T16:27:15Z</time></trkpt><trkpt lat="40.5807251390859" lon="9.113380003449056"><ele>736.2</ele><time>2026-04-30T16:27:16Z</time></trkpt><trkpt lat="40.58078372638631" lon="9.11327960670479"><ele>739.0</ele><time>2026-04-30T16:27:17Z</time></trkpt><trkpt lat="40.580835494922965" lon="9.113209111850628"><ele>739.3333333333334</ele><time>2026-04-30T16:27:18Z</time></trkpt><trkpt lat="40.580872741282505" lon="9.113136527232676"><ele>739.6666666666667</ele><time>2026-04-30T16:27:19Z</time></trkpt><trkpt lat="40.58091716922732" lon="9.113071068944318"><ele>740.0</ele><time>2026-04-30T16:27:20Z</time></trkpt><trkpt lat="40.58096386533609" lon="9.112940575037522"><ele>740.3333333333334</ele><time>2026-04-30T16:27:22Z</time></trkpt><trkpt lat="40.58100777211789" lon="9.112870507647775"><ele>740.6666666666666</ele><time>2026-04-30T16:27:24Z</time></trkpt><trkpt lat="40.58104754503507" lon="9.11279931996482"><ele>741.0</ele><time>2026-04-30T16:27:26Z</time></trkpt><trkpt lat="40.5811045202385" lon="9.11270250761437"><ele>741.0</ele><time>2026-04-30T16:27:28Z</time></trkpt><trkpt lat="40.58117317507858" lon="9.112552385307238"><ele>741.0</ele><time>2026-04-30T16:27:30Z</time></trkpt><trkpt lat="40.581211973455325" lon="9.112451533657893"><ele>741.0</ele><time>2026-04-30T16:27:31Z</time></trkpt><trkpt lat="40.58124926993592" lon="9.112360044652656"><ele>741.0</ele><time>2026-04-30T16:27:32Z</time></trkpt><trkpt lat="40.58129210529777" lon="9.112261785384842"><ele>741.0</ele><time>2026-04-30T16:27:33Z</time></trkpt><trkpt lat="40.5813321074038" lon="9.112176033987472"><ele>745.5999999999999</ele><time>2026-04-30T16:27:34Z</time></trkpt><trkpt lat="40.58140067653621" lon="9.112076608626586"><ele>750.2</ele><time>2026-04-30T16:27:36Z</time></trkpt><trkpt lat="40.5814677557786" lon="9.112000764819621"><ele>754.8</ele><time>2026-04-30T16:27:39Z</time></trkpt><trkpt lat="40.5815123596758" lon="9.111850129700779"><ele>759.4000000000001</ele><time>2026-04-30T16:27:41Z</time></trkpt><trkpt lat="40.58153341895644" lon="9.111736083887509"><ele>764.0</ele><time>2026-04-30T16:27:42Z</time></trkpt><trkpt lat="40.58156494165162" lon="9.111626869708985"><ele>764.3333333333333</ele><time>2026-04-30T16:27:43Z</time></trkpt><trkpt lat="40.581594876129934" lon="9.111546678362577"><ele>764.6666666666666</ele><time>2026-04-30T16:27:44Z</time></trkpt><trkpt lat="40.581632841675656" lon="9.111471714541274"><ele>765.0</ele><time>2026-04-30T16:27:45Z</time></trkpt><trkpt lat="40.58169559612656" lon="9.11133506556414"><ele>765.3333333333334</ele><time>2026-04-30T16:27:47Z</time></trkpt><trkpt lat="40.581735692271344" lon="9.111247147860482"><ele>765.6666666666667</ele><time>2026-04-30T16:27:49Z</time></trkpt><trkpt lat="40.58177159965352" lon="9.111132058680829"><ele>766.0</ele><time>2026-04-30T16:27:52Z</time></trkpt><trkpt lat="40.5817637150422" lon="9.111029490192632"><ele>766.0</ele><time>2026-04-30T16:27:54Z</time></trkpt><trkpt lat="40.581729639058025" lon="9.110955292007812"><ele>766.0</ele><time>2026-04-30T16:27:56Z</time></trkpt><trkpt lat="40.58165901945541" lon="9.110868117611275"><ele>766.0</ele><time>2026-04-30T16:28:00Z</time></trkpt><trkpt lat="40.581624818209086" lon="9.110792899884597"><ele>766.0</ele><time>2026-04-30T16:28:04Z</time></trkpt><trkpt lat="40.581580568517154" lon="9.11073176971442"><ele>766.0</ele><time>2026-04-30T16:28:06Z</time></trkpt><trkpt lat="40.58152776107842" lon="9.110649805481179"><ele>766.0</ele><time>2026-04-30T16:28:08Z</time></trkpt><trkpt lat="40.58144828147823" lon="9.110554810010404"><ele>766.8333333333334</ele><time>2026-04-30T16:28:10Z</time></trkpt><trkpt lat="40.5813822638075" lon="9.110493392521494"><ele>767.6666666666667</ele><time>2026-04-30T16:28:12Z</time></trkpt><trkpt lat="40.5813298986898" lon="9.11041705543433"><ele>768.5</ele><time>2026-04-30T16:28:14Z</time></trkpt><trkpt lat="40.58127289118889" lon="9.110322732301892"><ele>769.3333333333334</ele><time>2026-04-30T16:28:16Z</time></trkpt><trkpt lat="40.581218207195455" lon="9.11026515619042"><ele>770.1666666666666</ele><time>2026-04-30T16:28:19Z</time></trkpt><trkpt lat="40.58114891303979" lon="9.110178525686582"><ele>771.0</ele><time>2026-04-30T16:28:22Z</time></trkpt><trkpt lat="40.58108466674615" lon="9.110102108953038"><ele>771.0</ele><time>2026-04-30T16:28:24Z</time></trkpt><trkpt lat="40.58102565912675" lon="9.110015263028886"><ele>771.0</ele><time>2026-04-30T16:28:27Z</time></trkpt><trkpt lat="40.58093717939229" lon="9.109908513390529"><ele>771.0</ele><time>2026-04-30T16:28:29Z</time></trkpt><trkpt lat="40.580875778801065" lon="9.109794678176286"><ele>771.0</ele><time>2026-04-30T16:28:31Z</time></trkpt><trkpt lat="40.58085151275865" lon="9.109708800646061"><ele>771.0</ele><time>2026-04-30T16:28:44Z</time></trkpt><trkpt lat="40.580897205533624" lon="9.109774999000186"><ele>773.0</ele><time>2026-04-30T16:31:14Z</time></trkpt><trkpt lat="40.58083189240396" lon="9.109792644576288"><ele>775.0</ele><time>2026-04-30T16:31:27Z</time></trkpt><trkpt lat="40.58076808497095" lon="9.109783507391535"><ele>777.0</ele><time>2026-04-30T16:32:38Z</time></trkpt><trkpt lat="40.580705711123045" lon="9.109760882813152"><ele>779.0</ele><time>2026-04-30T16:32:53Z</time></trkpt><trkpt lat="40.58080369619562" lon="9.109722491565055"><ele>781.0</ele><time>2026-04-30T16:33:48Z</time></trkpt><trkpt lat="40.58087608018897" lon="9.10973656103261"><ele>783.0</ele><time>2026-04-30T16:34:59Z</time></trkpt><trkpt lat="40.58083407125625" lon="9.109662929128902"><ele>785.0</ele><time>2026-04-30T16:35:22Z</time></trkpt><trkpt lat="40.580789043576935" lon="9.109586310753421"><ele>785.0000000000001</ele><time>2026-04-30T16:36:04Z</time></trkpt><trkpt lat="40.5806934812274" lon="9.109574321843"><ele>785.0</ele><time>2026-04-30T16:36:31Z</time></trkpt><trkpt lat="40.580622783818335" lon="9.109563927043961"><ele>785.0</ele><time>2026-04-30T16:36:33Z</time></trkpt><trkpt lat="40.58054242602617" lon="9.109561353289358"><ele>785.0</ele><time>2026-04-30T16:36:36.001Z</time></trkpt><trkpt lat="40.58046536688292" lon="9.109566841819312"><ele>785.0000000000001</ele><time>2026-04-30T16:36:38.001Z</time></trkpt><trkpt lat="40.58040105011349" lon="9.10956430031961"><ele>785.0</ele><time>2026-04-30T16:36:40.001Z</time></trkpt><trkpt lat="40.58032063256961" lon="9.109594460729156"><ele>784.4</ele><time>2026-04-30T16:36:42.001Z</time></trkpt><trkpt lat="40.58023588497557" lon="9.109616450953094"><ele>783.8</ele><time>2026-04-30T16:36:44.001Z</time></trkpt><trkpt lat="40.580156215334014" lon="9.109643333029858"><ele>783.2</ele><time>2026-04-30T16:36:46.001Z</time></trkpt><trkpt lat="40.580048819844166" lon="9.109649433446087"><ele>782.6</ele><time>2026-04-30T16:36:48.001Z</time></trkpt><trkpt lat="40.57992680379964" lon="9.109630225870722"><ele>782.0</ele><time>2026-04-30T16:36:50.001Z</time></trkpt><trkpt lat="40.579863813437505" lon="9.109623007568747"><ele>782.0</ele><time>2026-04-30T16:36:51.001Z</time></trkpt><trkpt lat="40.579754365342666" lon="9.10961949785244"><ele>782.0</ele><time>2026-04-30T16:36:53.001Z</time></trkpt><trkpt lat="40.5796777776883" lon="9.109570459328364"><ele>782.0</ele><time>2026-04-30T16:36:55.001Z</time></trkpt><trkpt lat="40.57963664957041" lon="9.109479845701388"><ele>782.0</ele><time>2026-04-30T16:36:57.001Z</time></trkpt><trkpt lat="40.579599851071436" lon="9.109328859371113"><ele>782.0</ele><time>2026-04-30T16:36:59.001Z</time></trkpt><trkpt lat="40.57958325933565" lon="9.109241607073118"><ele>782.0000000000001</ele><time>2026-04-30T16:37:00.001Z</time></trkpt><trkpt lat="40.57956645503843" lon="9.109157133098945"><ele>782.0</ele><time>2026-04-30T16:37:01.001Z</time></trkpt><trkpt lat="40.57955002006298" lon="9.109063528103716"><ele>782.0</ele><time>2026-04-30T16:37:02.001Z</time></trkpt><trkpt lat="40.57952722001071" lon="9.108963299497773"><ele>782.0</ele><time>2026-04-30T16:37:03.001Z</time></trkpt><trkpt lat="40.57950151858916" lon="9.108859998325789"><ele>782.0000000000001</ele><time>2026-04-30T16:37:04.001Z</time></trkpt><trkpt lat="40.57947979202896" lon="9.108757933694653"><ele>782.0</ele><time>2026-04-30T16:37:05.001Z</time></trkpt><trkpt lat="40.57945366632788" lon="9.10865197359344"><ele>783.0</ele><time>2026-04-30T16:37:06.001Z</time></trkpt><trkpt lat="40.57942780955368" lon="9.108548052098559"><ele>784.0</ele><time>2026-04-30T16:37:07.001Z</time></trkpt><trkpt lat="40.579397545644255" lon="9.108448976116719"><ele>785.0</ele><time>2026-04-30T16:37:08.001Z</time></trkpt><trkpt lat="40.57935806682909" lon="9.108342768490013"><ele>786.0</ele><time>2026-04-30T16:37:09.001Z</time></trkpt><trkpt lat="40.57931788476328" lon="9.108184514455562"><ele>787.0</ele><time>2026-04-30T16:37:11.001Z</time></trkpt><trkpt lat="40.579280367469146" lon="9.108092157652463"><ele>786.9999999999999</ele><time>2026-04-30T16:37:12.001Z</time></trkpt><trkpt lat="40.579238679664826" lon="9.107993657583267"><ele>787.0</ele><time>2026-04-30T16:37:13.001Z</time></trkpt><trkpt lat="40.5792019529301" lon="9.107899811718182"><ele>787.0</ele><time>2026-04-30T16:37:14.001Z</time></trkpt><trkpt lat="40.57916504657277" lon="9.107806738238347"><ele>787.0</ele><time>2026-04-30T16:37:15.001Z</time></trkpt><trkpt lat="40.579135817010595" lon="9.107726740085312"><ele>786.9999999999999</ele><time>2026-04-30T16:37:16.001Z</time></trkpt><trkpt lat="40.579100810204615" lon="9.107643060373084"><ele>787.0</ele><time>2026-04-30T16:37:17.001Z</time></trkpt><trkpt lat="40.579058685070386" lon="9.107554836980595"><ele>786.9999999999999</ele><time>2026-04-30T16:37:18.001Z</time></trkpt><trkpt lat="40.579007746697364" lon="9.107467728166299"><ele>787.0</ele><time>2026-04-30T16:37:19.001Z</time></trkpt><trkpt lat="40.57896240675844" lon="9.107373395612333"><ele>787.0</ele><time>2026-04-30T16:37:20.001Z</time></trkpt><trkpt lat="40.5789165216978" lon="9.107284367771438"><ele>787.0</ele><time>2026-04-30T16:37:21.001Z</time></trkpt><trkpt lat="40.5788718016288" lon="9.107201886967715"><ele>786.9999999999999</ele><time>2026-04-30T16:37:22.001Z</time></trkpt><trkpt lat="40.57882253616345" lon="9.107121495719618"><ele>787.0</ele><time>2026-04-30T16:37:23.001Z</time></trkpt><trkpt lat="40.578776977151435" lon="9.107049122520632"><ele>785.6</ele><time>2026-04-30T16:37:24.001Z</time></trkpt><trkpt lat="40.578707680220866" lon="9.10698221361742"><ele>784.2</ele><time>2026-04-30T16:37:26.001Z</time></trkpt><trkpt lat="40.57861891743818" lon="9.106911828223687"><ele>782.8</ele><time>2026-04-30T16:37:34.001Z</time></trkpt><trkpt lat="40.57850022742974" lon="9.106821641278325"><ele>781.4</ele><time>2026-04-30T16:37:36.001Z</time></trkpt><trkpt lat="40.578437013262274" lon="9.106778404423482"><ele>780.0</ele><time>2026-04-30T16:37:37.001Z</time></trkpt><trkpt lat="40.57838083058778" lon="9.106728922091156"><ele>780.0</ele><time>2026-04-30T16:37:38.001Z</time></trkpt><trkpt lat="40.57830521681027" lon="9.106656615727077"><ele>780.0</ele><time>2026-04-30T16:37:40.001Z</time></trkpt><trkpt lat="40.57822652068182" lon="9.10663432592537"><ele>780.0</ele><time>2026-04-30T16:37:43.001Z</time></trkpt><trkpt lat="40.57818590966125" lon="9.106569637020518"><ele>780.0</ele><time>2026-04-30T16:37:48.001Z</time></trkpt><trkpt lat="40.578139250694406" lon="9.106495200884062"><ele>780.0</ele><time>2026-04-30T16:38:17.001Z</time></trkpt><trkpt lat="40.57822067035165" lon="9.106559174694915"><ele>780.0</ele><time>2026-04-30T16:38:25.001Z</time></trkpt><trkpt lat="40.578258383053225" lon="9.106646515665267"><ele>780.0</ele><time>2026-04-30T16:38:27.001Z</time></trkpt><trkpt lat="40.57831584295536" lon="9.106726495739226"><ele>780.0</ele><time>2026-04-30T16:38:29.001Z</time></trkpt><trkpt lat="40.57837912833318" lon="9.10679191495064"><ele>780.0</ele><time>2026-04-30T16:38:31.001Z</time></trkpt><trkpt lat="40.57847532039312" lon="9.106870017938421"><ele>780.0</ele><time>2026-04-30T16:38:33.001Z</time></trkpt><trkpt lat="40.57856351343173" lon="9.106946288709322"><ele>780.0</ele><time>2026-04-30T16:38:35.001Z</time></trkpt><trkpt lat="40.57864879366382" lon="9.107039415303667"><ele>781.4</ele><time>2026-04-30T16:38:37.001Z</time></trkpt><trkpt lat="40.57872585356675" lon="9.107149172606762"><ele>782.8</ele><time>2026-04-30T16:38:39.001Z</time></trkpt><trkpt lat="40.57876729306795" lon="9.107213934268492"><ele>784.2</ele><time>2026-04-30T16:38:40.001Z</time></trkpt><trkpt lat="40.5788087171009" lon="9.107291141491368"><ele>785.6</ele><time>2026-04-30T16:38:41.001Z</time></trkpt><trkpt lat="40.578874682774455" lon="9.10743272208667"><ele>787.0</ele><time>2026-04-30T16:38:43.001Z</time></trkpt><trkpt lat="40.57893485395278" lon="9.107530067028671"><ele>786.9999999999999</ele><time>2026-04-30T16:38:45.001Z</time></trkpt><trkpt lat="40.578998759223424" lon="9.107656356188821"><ele>787.0</ele><time>2026-04-30T16:38:47.001Z</time></trkpt><trkpt lat="40.57903298715843" lon="9.107747733468953"><ele>787.0</ele><time>2026-04-30T16:38:49.001Z</time></trkpt><trkpt lat="40.57904385015671" lon="9.107831901084293"><ele>787.0</ele><time>2026-04-30T16:38:56.001Z</time></trkpt><trkpt lat="40.57910200498993" lon="9.107916605972193"><ele>786.9999999999999</ele><time>2026-04-30T16:38:58.001Z</time></trkpt><trkpt lat="40.57915680953429" lon="9.107999062472082"><ele>787.0</ele><time>2026-04-30T16:39:01.001Z</time></trkpt><trkpt lat="40.579199375768255" lon="9.108086443670116"><ele>786.9999999999999</ele><time>2026-04-30T16:39:05.001Z</time></trkpt><trkpt lat="40.57924426425217" lon="9.108164002080198"><ele>787.0</ele><time>2026-04-30T16:39:09.001Z</time></trkpt><trkpt lat="40.57929058604739" lon="9.108238176828603"><ele>787.0</ele><time>2026-04-30T16:39:38.001Z</time></trkpt><trkpt lat="40.579336866699535" lon="9.108353348707318"><ele>787.0</ele><time>2026-04-30T16:39:41.002Z</time></trkpt><trkpt lat="40.5793673153763" lon="9.10845784913513"><ele>786.9999999999999</ele><time>2026-04-30T16:39:43.002Z</time></trkpt><trkpt lat="40.579401219022486" lon="9.108560822905925"><ele>787.0</ele><time>2026-04-30T16:39:45.002Z</time></trkpt><trkpt lat="40.579443094219734" lon="9.10869582803748"><ele>786.1666666666666</ele><time>2026-04-30T16:39:47.002Z</time></trkpt><trkpt lat="40.57946862166795" lon="9.108843845451316"><ele>785.3333333333333</ele><time>2026-04-30T16:39:49.002Z</time></trkpt><trkpt lat="40.57946028196521" lon="9.108931160318809"><ele>784.5</ele><time>2026-04-30T16:39:50.002Z</time></trkpt><trkpt lat="40.57946107003664" lon="9.109029889516657"><ele>783.6666666666667</ele><time>2026-04-30T16:39:51.002Z</time></trkpt><trkpt lat="40.57947535762773" lon="9.109123989382631"><ele>782.8333333333334</ele><time>2026-04-30T16:39:52.002Z</time></trkpt><trkpt lat="40.579492121106426" lon="9.109206646476403"><ele>782.0</ele><time>2026-04-30T16:39:53.002Z</time></trkpt><trkpt lat="40.579522781589475" lon="9.109286209845328"><ele>782.0000000000001</ele><time>2026-04-30T16:39:54.002Z</time></trkpt><trkpt lat="40.579562729608405" lon="9.109420826474118"><ele>782.0</ele><time>2026-04-30T16:39:56.002Z</time></trkpt><trkpt lat="40.5795568059998" lon="9.109521816708636"><ele>782.0</ele><time>2026-04-30T16:39:59.002Z</time></trkpt><trkpt lat="40.579622133049085" lon="9.109504574360633"><ele>782.0</ele><time>2026-04-30T16:40:41.002Z</time></trkpt><trkpt lat="40.57967638140159" lon="9.109588120241801"><ele>782.0000000000001</ele><time>2026-04-30T16:40:43.002Z</time></trkpt><trkpt lat="40.579741509021424" lon="9.109631085247958"><ele>782.0</ele><time>2026-04-30T16:40:45.002Z</time></trkpt><trkpt lat="40.5797990496811" lon="9.1096659704836"><ele>782.0000000000001</ele><time>2026-04-30T16:40:48.002Z</time></trkpt><trkpt lat="40.57986115896468" lon="9.109688182539497"><ele>782.0</ele><time>2026-04-30T16:40:51.002Z</time></trkpt><trkpt lat="40.579950402107386" lon="9.109704453990636"><ele>782.0</ele><time>2026-04-30T16:40:53.002Z</time></trkpt><trkpt lat="40.58003650778133" lon="9.109692129012087"><ele>782.0</ele><time>2026-04-30T16:40:56.002Z</time></trkpt><trkpt lat="40.580128904344285" lon="9.109661658706944"><ele>782.0000000000001</ele><time>2026-04-30T16:40:58.002Z</time></trkpt><trkpt lat="40.5801853691985" lon="9.109610657457836"><ele>782.0</ele><time>2026-04-30T16:40:59.002Z</time></trkpt><trkpt lat="40.580299191500785" lon="9.109584773652557"><ele>782.6</ele><time>2026-04-30T16:41:01.002Z</time></trkpt><trkpt lat="40.58040305503641" lon="9.10953987670007"><ele>783.2</ele><time>2026-04-30T16:41:03.002Z</time></trkpt><trkpt lat="40.580490462355094" lon="9.10955839555634"><ele>783.8</ele><time>2026-04-30T16:41:05.002Z</time></trkpt><trkpt lat="40.58054767362894" lon="9.109638881304603"><ele>784.4</ele><time>2026-04-30T16:41:08.002Z</time></trkpt><trkpt lat="40.580634695360416" lon="9.10968403923047"><ele>785.0</ele><time>2026-04-30T16:41:11.002Z</time></trkpt><trkpt lat="40.58072887804177" lon="9.10973679407818"><ele>785.0000000000001</ele><time>2026-04-30T16:41:17.002Z</time></trkpt><trkpt lat="40.58081637328764" lon="9.1097049863466"><ele>785.0</ele><time>2026-04-30T16:41:20.002Z</time></trkpt><trkpt lat="40.580754783656985" lon="9.109655924663935"><ele>785.0</ele><time>2026-04-30T16:45:54.004Z</time></trkpt><trkpt lat="40.58086749754514" lon="9.109672605810701"><ele>785.0</ele><time>2026-04-30T16:49:13.005Z</time></trkpt><trkpt lat="40.58079425441635" lon="9.109665323627572"><ele>785.0000000000001</ele><time>2026-04-30T17:06:50.001Z</time></trkpt><trkpt lat="40.58073621317865" lon="9.109632535327535"><ele>785.0</ele><time>2026-04-30T17:07:19.002Z</time></trkpt><trkpt lat="40.58087522358339" lon="9.109800816180629"><ele>785.0</ele><time>2026-04-30T17:09:12.144Z</time></trkpt><trkpt lat="40.58082741243855" lon="9.109599955618759"><ele>785.0</ele><time>2026-04-30T17:39:13.7Z</time></trkpt><trkpt lat="40.58087549218166" lon="9.10954169345982"><ele>785.0</ele><time>2026-04-30T17:39:14.7Z</time></trkpt><trkpt lat="40.58093151094655" lon="9.109585816047371"><ele>785.0</ele><time>2026-04-30T17:39:22.697Z</time></trkpt><trkpt lat="40.580878564860754" lon="9.10963765443505"><ele>785.0</ele><time>2026-04-30T17:39:33.596Z</time></trkpt><trkpt lat="40.58094021777712" lon="9.109732714699762"><ele>785.0</ele><time>2026-04-30T17:40:57.995Z</time></trkpt><trkpt lat="40.58104062496444" lon="9.10977469081151"><ele>785.0</ele><time>2026-04-30T17:40:59.995Z</time></trkpt><trkpt lat="40.58113411454449" lon="9.109845819889085"><ele>785.0</ele><time>2026-04-30T17:41:01.995Z</time></trkpt><trkpt lat="40.58124367902287" lon="9.109876175313413"><ele>785.0</ele><time>2026-04-30T17:41:03.995Z</time></trkpt><trkpt lat="40.58134331558957" lon="9.109961353534242"><ele>785.0</ele><time>2026-04-30T17:41:05.995Z</time></trkpt><trkpt lat="40.58141979288111" lon="9.110028148563742"><ele>784.1666666666667</ele><time>2026-04-30T17:41:07.995Z</time></trkpt><trkpt lat="40.5815032504078" lon="9.110122637526748"><ele>783.3333333333334</ele><time>2026-04-30T17:41:10.995Z</time></trkpt><trkpt lat="40.58156938864416" lon="9.11014793547457"><ele>782.5</ele><time>2026-04-30T17:41:12.995Z</time></trkpt><trkpt lat="40.58165716369147" lon="9.110181746361606"><ele>781.6666666666667</ele><time>2026-04-30T17:41:15.995Z</time></trkpt><trkpt lat="40.58172299213891" lon="9.110211446271206"><ele>780.8333333333334</ele><time>2026-04-30T17:41:19.995Z</time></trkpt><trkpt lat="40.581816043672376" lon="9.110192344280808"><ele>780.0</ele><time>2026-04-30T17:41:49.995Z</time></trkpt><trkpt lat="40.58187430826353" lon="9.110231706346514"><ele>780.0</ele><time>2026-04-30T17:41:51.995Z</time></trkpt><trkpt lat="40.58196167831818" lon="9.110317114138217"><ele>780.0</ele><time>2026-04-30T17:41:53.995Z</time></trkpt><trkpt lat="40.5820539546149" lon="9.110399763889891"><ele>780.0</ele><time>2026-04-30T17:41:55.995Z</time></trkpt><trkpt lat="40.58211309082802" lon="9.110458860120621"><ele>780.0</ele><time>2026-04-30T17:41:57.995Z</time></trkpt><trkpt lat="40.58210437238051" lon="9.110562598304943"><ele>780.0</ele><time>2026-04-30T17:41:59.995Z</time></trkpt><trkpt lat="40.582193317560744" lon="9.110589453697397"><ele>779.8333333333334</ele><time>2026-04-30T17:42:01.995Z</time></trkpt><trkpt lat="40.582256906665606" lon="9.110691853336863"><ele>779.6666666666667</ele><time>2026-04-30T17:42:03.995Z</time></trkpt><trkpt lat="40.5822737568583" lon="9.110812096650143"><ele>779.5</ele><time>2026-04-30T17:42:05.995Z</time></trkpt><trkpt lat="40.5823128643321" lon="9.11089988449507"><ele>779.3333333333334</ele><time>2026-04-30T17:42:08.995Z</time></trkpt><trkpt lat="40.58238998842508" lon="9.110885786770035"><ele>779.1666666666667</ele><time>2026-04-30T17:42:13.995Z</time></trkpt><trkpt lat="40.582317475616286" lon="9.110827637162448"><ele>779.0</ele><time>2026-04-30T17:42:16.995Z</time></trkpt><trkpt lat="40.58223227238789" lon="9.110739648808325"><ele>779.1666666666667</ele><time>2026-04-30T17:42:18.995Z</time></trkpt><trkpt lat="40.5821489079427" lon="9.110651121209557"><ele>779.3333333333334</ele><time>2026-04-30T17:42:20.995Z</time></trkpt><trkpt lat="40.58209570162011" lon="9.11059577054892"><ele>779.5</ele><time>2026-04-30T17:42:22.995Z</time></trkpt><trkpt lat="40.58204416602989" lon="9.110517934448263"><ele>779.6666666666667</ele><time>2026-04-30T17:42:25.995Z</time></trkpt><trkpt lat="40.58197825455526" lon="9.110462925044374"><ele>779.8333333333334</ele><time>2026-04-30T17:42:27.995Z</time></trkpt><trkpt lat="40.581903673772054" lon="9.110383434146804"><ele>780.0</ele><time>2026-04-30T17:42:29.995Z</time></trkpt><trkpt lat="40.58184056761026" lon="9.110323776423238"><ele>780.0</ele><time>2026-04-30T17:42:31.995Z</time></trkpt><trkpt lat="40.581761269284875" lon="9.11025409501545"><ele>780.0</ele><time>2026-04-30T17:42:33.995Z</time></trkpt><trkpt lat="40.58166596018907" lon="9.11018524751642"><ele>780.0</ele><time>2026-04-30T17:42:35.995Z</time></trkpt><trkpt lat="40.581558936901516" lon="9.110124592040943"><ele>780.0</ele><time>2026-04-30T17:42:37.995Z</time></trkpt><trkpt lat="40.58146367091338" lon="9.110065933110207"><ele>780.0</ele><time>2026-04-30T17:42:39.995Z</time></trkpt><trkpt lat="40.5813767698427" lon="9.110001841406214"><ele>780.0</ele><time>2026-04-30T17:42:41.995Z</time></trkpt><trkpt lat="40.581278155502694" lon="9.109915127223802"><ele>780.0</ele><time>2026-04-30T17:42:43.995Z</time></trkpt><trkpt lat="40.58120639509781" lon="9.109853266829273"><ele>780.0</ele><time>2026-04-30T17:42:45.995Z</time></trkpt><trkpt lat="40.58111999727763" lon="9.109769038555568"><ele>780.0</ele><time>2026-04-30T17:42:47.995Z</time></trkpt><trkpt lat="40.58104179309981" lon="9.10970129589924"><ele>780.0</ele><time>2026-04-30T17:42:49.995Z</time></trkpt><trkpt lat="40.5809790058216" lon="9.109646907798757"><ele>780.0</ele><time>2026-04-30T17:42:52.995Z</time></trkpt><trkpt lat="40.58104346993941" lon="9.109702748436309"><ele>780.0</ele><time>2026-04-30T17:42:59.995Z</time></trkpt><trkpt lat="40.58110451333053" lon="9.109755625947281"><ele>780.0</ele><time>2026-04-30T17:43:01.995Z</time></trkpt><trkpt lat="40.58118701802956" lon="9.109827093841497"><ele>780.0</ele><time>2026-04-30T17:43:03.995Z</time></trkpt><trkpt lat="40.5812827483708" lon="9.109910018331716"><ele>780.0</ele><time>2026-04-30T17:43:05.995Z</time></trkpt><trkpt lat="40.5813251961774" lon="9.110030894431189"><ele>780.0</ele><time>2026-04-30T17:43:06.995Z</time></trkpt><trkpt lat="40.58131364715353" lon="9.110288080525544"><ele>780.0</ele><time>2026-04-30T17:43:08.995Z</time></trkpt><trkpt lat="40.58134676170573" lon="9.11036033626959"><ele>780.0</ele><time>2026-04-30T17:43:09.995Z</time></trkpt><trkpt lat="40.58138514333622" lon="9.110433770257554"><ele>780.0</ele><time>2026-04-30T17:43:10.995Z</time></trkpt><trkpt lat="40.581593201007465" lon="9.110317840778773"><ele>773.0</ele><time>2026-04-30T17:43:12.995Z</time></trkpt><trkpt lat="40.581639715396406" lon="9.110834514897418"><ele>766.0</ele><time>2026-04-30T17:43:16.995Z</time></trkpt><trkpt lat="40.58169400888189" lon="9.110922789947711"><ele>766.0</ele><time>2026-04-30T17:43:18.995Z</time></trkpt><trkpt lat="40.581841794139756" lon="9.110852453638353"><ele>766.0</ele><time>2026-04-30T17:43:20.995Z</time></trkpt><trkpt lat="40.5818913474519" lon="9.11077066528165"><ele>766.0</ele><time>2026-04-30T17:43:27.995Z</time></trkpt><trkpt lat="40.58195710989847" lon="9.110742104286013"><ele>766.0</ele><time>2026-04-30T17:43:31.995Z</time></trkpt><trkpt lat="40.582016394920196" lon="9.110773854095036"><ele>766.0</ele><time>2026-04-30T17:43:40.995Z</time></trkpt><trkpt lat="40.58194894201958" lon="9.1108022898037"><ele>766.0</ele><time>2026-04-30T17:44:19.995Z</time></trkpt><trkpt lat="40.581905945316386" lon="9.110867026459347"><ele>766.0</ele><time>2026-04-30T17:44:23.995Z</time></trkpt><trkpt lat="40.58192333006292" lon="9.110949774779451"><ele>766.0</ele><time>2026-04-30T17:44:28.995Z</time></trkpt><trkpt lat="40.58186754115566" lon="9.110905218047849"><ele>766.0</ele><time>2026-04-30T17:44:55.995Z</time></trkpt><trkpt lat="40.5818057664771" lon="9.110873214037658"><ele>766.0</ele><time>2026-04-30T17:45:46.994Z</time></trkpt><trkpt lat="40.581756136696704" lon="9.110925895900927"><ele>766.0</ele><time>2026-04-30T17:45:49.994Z</time></trkpt><trkpt lat="40.58175254437807" lon="9.111015434352614"><ele>766.0</ele><time>2026-04-30T17:45:52.994Z</time></trkpt><trkpt lat="40.581820315114996" lon="9.111021689318418"><ele>766.0</ele><time>2026-04-30T17:45:56.994Z</time></trkpt><trkpt lat="40.58176921303954" lon="9.111073937047491"><ele>766.0</ele><time>2026-04-30T17:46:07.994Z</time></trkpt><trkpt lat="40.581693334411725" lon="9.111116064818642"><ele>766.0</ele><time>2026-04-30T17:46:12.137Z</time></trkpt><trkpt lat="40.58163020444381" lon="9.111090059846395"><ele>766.0</ele><time>2026-04-30T17:46:17.138Z</time></trkpt><trkpt lat="40.58156844827039" lon="9.111066938988198"><ele>766.0</ele><time>2026-04-30T17:46:24.133Z</time></trkpt><trkpt lat="40.581810583232844" lon="9.111054571466967"><ele>766.0</ele><time>2026-04-30T17:47:04.975Z</time></trkpt><trkpt lat="40.58174720496462" lon="9.110893116104181"><ele>766.0</ele><time>2026-04-30T17:47:17.975Z</time></trkpt><trkpt lat="40.58179085082409" lon="9.110828506306643"><ele>766.0</ele><time>2026-04-30T17:50:44.973Z</time></trkpt><trkpt lat="40.581755291123336" lon="9.110897663774033"><ele>766.0</ele><time>2026-04-30T17:51:52.972Z</time></trkpt><trkpt lat="40.58187279746486" lon="9.110890237488078"><ele>766.0</ele><time>2026-04-30T17:52:22.972Z</time></trkpt><trkpt lat="40.58192408236944" lon="9.110953647644871"><ele>766.0</ele><time>2026-04-30T17:52:28.972Z</time></trkpt><trkpt lat="40.58196725041053" lon="9.110816347467392"><ele>766.0</ele><time>2026-04-30T17:55:21.97Z</time></trkpt><trkpt lat="40.581981559652355" lon="9.11090591319621"><ele>766.0</ele><time>2026-04-30T17:56:16.971Z</time></trkpt><trkpt lat="40.58199513611756" lon="9.110770376630727"><ele>766.0</ele><time>2026-04-30T18:12:57.964Z</time></trkpt><trkpt lat="40.58203397525691" lon="9.110875622350187"><ele>766.0</ele><time>2026-04-30T18:17:07.961Z</time></trkpt><trkpt lat="40.58210481482144" lon="9.110848932904162"><ele>766.0</ele><time>2026-05-01T05:44:52Z</time></trkpt><trkpt lat="40.5820508445675" lon="9.110798616035533"><ele>766.0</ele><time>2026-05-01T05:44:54Z</time></trkpt><trkpt lat="40.58198467881098" lon="9.110745738269589"><ele>766.0</ele><time>2026-05-01T05:44:57Z</time></trkpt><trkpt lat="40.58197449137175" lon="9.110968284615534"><ele>766.0</ele><time>2026-05-01T05:46:53Z</time></trkpt><trkpt lat="40.581899288872414" lon="9.110930481619157"><ele>766.0</ele><time>2026-05-01T05:47:22Z</time></trkpt><trkpt lat="40.58182108468428" lon="9.110836639997212"><ele>766.0</ele><time>2026-05-01T05:47:44Z</time></trkpt><trkpt lat="40.5817818336145" lon="9.11091478145405"><ele>766.0</ele><time>2026-05-01T05:47:53Z</time></trkpt><trkpt lat="40.5818125262597" lon="9.110997519942774"><ele>766.0</ele><time>2026-05-01T05:47:59Z</time></trkpt><trkpt lat="40.581894313083644" lon="9.110980953825955"><ele>766.0</ele><time>2026-05-01T05:48:09Z</time></trkpt><trkpt lat="40.581818838269626" lon="9.111067852640367"><ele>766.0</ele><time>2026-05-01T06:08:41.999Z</time></trkpt><trkpt lat="40.58181097239473" lon="9.111168843531734"><ele>766.0</ele><time>2026-05-01T06:09:15Z</time></trkpt><trkpt lat="40.58186268255864" lon="9.111231793832134"><ele>766.0</ele><time>2026-05-01T06:09:18Z</time></trkpt><trkpt lat="40.581901685644986" lon="9.111297646065669"><ele>766.0</ele><time>2026-05-01T06:09:20Z</time></trkpt><trkpt lat="40.581971132472255" lon="9.111380443257648"><ele>766.0</ele><time>2026-05-01T06:09:22Z</time></trkpt><trkpt lat="40.58203509664694" lon="9.11146100514308"><ele>766.0</ele><time>2026-05-01T06:09:24Z</time></trkpt><trkpt lat="40.58209174150011" lon="9.111552674688081"><ele>766.0</ele><time>2026-05-01T06:09:26Z</time></trkpt><trkpt lat="40.582071081176245" lon="9.111662220277713"><ele>766.0</ele><time>2026-05-01T06:09:28Z</time></trkpt><trkpt lat="40.582111552561294" lon="9.111802882053397"><ele>768.5</ele><time>2026-05-01T06:09:30Z</time></trkpt><trkpt lat="40.58213030273798" lon="9.111922450089768"><ele>771.0</ele><time>2026-05-01T06:09:32Z</time></trkpt><trkpt lat="40.58215405654408" lon="9.112002783018276"><ele>773.5</ele><time>2026-05-01T06:09:35Z</time></trkpt><trkpt lat="40.5822256204524" lon="9.111985231474298"><ele>776.0</ele><time>2026-05-01T06:09:38Z</time></trkpt><trkpt lat="40.58223923061723" lon="9.111853980843522"><ele>778.4999999999999</ele><time>2026-05-01T06:09:42Z</time></trkpt><trkpt lat="40.58229073095075" lon="9.111719270607601"><ele>781.0</ele><time>2026-05-01T06:09:44Z</time></trkpt><trkpt lat="40.58231919136483" lon="9.111640697230078"><ele>781.0</ele><time>2026-05-01T06:09:47Z</time></trkpt><trkpt lat="40.58227445676484" lon="9.11177357549381"><ele>781.0</ele><time>2026-05-01T06:09:54Z</time></trkpt><trkpt lat="40.582265125460324" lon="9.111900848155935"><ele>781.0</ele><time>2026-05-01T06:09:56Z</time></trkpt><trkpt lat="40.58228243263442" lon="9.112022511296333"><ele>781.0</ele><time>2026-05-01T06:09:58Z</time></trkpt><trkpt lat="40.582380374414484" lon="9.112117308902322"><ele>781.0</ele><time>2026-05-01T06:10:00Z</time></trkpt><trkpt lat="40.582433201728975" lon="9.11216898382053"><ele>781.0</ele><time>2026-05-01T06:10:01Z</time></trkpt><trkpt lat="40.5824857154626" lon="9.112220349890181"><ele>781.0</ele><time>2026-05-01T06:10:01.999Z</time></trkpt><trkpt lat="40.58254140676362" lon="9.112296556549877"><ele>781.0</ele><time>2026-05-01T06:10:02.999Z</time></trkpt><trkpt lat="40.58261994307867" lon="9.112307466302509"><ele>781.0</ele><time>2026-05-01T06:10:03.999Z</time></trkpt><trkpt lat="40.582676313159226" lon="9.112347066807457"><ele>781.0</ele><time>2026-05-01T06:10:04.999Z</time></trkpt><trkpt lat="40.582743597814556" lon="9.112410113899143"><ele>781.0</ele><time>2026-05-01T06:10:05.999Z</time></trkpt><trkpt lat="40.582803291338195" lon="9.112450910122249"><ele>781.0</ele><time>2026-05-01T06:10:06.999Z</time></trkpt><trkpt lat="40.58284590609003" lon="9.112525532755832"><ele>781.3333333333333</ele><time>2026-05-01T06:10:08Z</time></trkpt><trkpt lat="40.582917782262726" lon="9.11261285098667"><ele>781.6666666666666</ele><time>2026-05-01T06:10:08.999Z</time></trkpt><trkpt lat="40.5829730624913" lon="9.112656345479662"><ele>782.0</ele><time>2026-05-01T06:10:09.999Z</time></trkpt><trkpt lat="40.5830467011188" lon="9.112666475948581"><ele>782.3333333333333</ele><time>2026-05-01T06:10:11Z</time></trkpt><trkpt lat="40.58310837680445" lon="9.11268517170987"><ele>782.6666666666666</ele><time>2026-05-01T06:10:12Z</time></trkpt><trkpt lat="40.583171274037404" lon="9.112693859078504"><ele>783.0</ele><time>2026-05-01T06:10:13Z</time></trkpt><trkpt lat="40.58327729912505" lon="9.112690421092562"><ele>783.0</ele><time>2026-05-01T06:10:15Z</time></trkpt><trkpt lat="40.58334998402759" lon="9.112628075085198"><ele>783.0</ele><time>2026-05-01T06:10:16Z</time></trkpt><trkpt lat="40.583412399619625" lon="9.112563827441413"><ele>783.0</ele><time>2026-05-01T06:10:17Z</time></trkpt><trkpt lat="40.58346093547645" lon="9.112483416615039"><ele>783.0</ele><time>2026-05-01T06:10:18Z</time></trkpt><trkpt lat="40.583504716017956" lon="9.11240654001547"><ele>783.0</ele><time>2026-05-01T06:10:19Z</time></trkpt><trkpt lat="40.58354169517857" lon="9.112327296668724"><ele>783.0</ele><time>2026-05-01T06:10:20Z</time></trkpt><trkpt lat="40.58357694695648" lon="9.112240908964017"><ele>783.5</ele><time>2026-05-01T06:10:21Z</time></trkpt><trkpt lat="40.58358930049509" lon="9.11213766890265"><ele>784.0</ele><time>2026-05-01T06:10:22Z</time></trkpt><trkpt lat="40.58360569882396" lon="9.112039399551128"><ele>784.5</ele><time>2026-05-01T06:10:23Z</time></trkpt><trkpt lat="40.58360724288283" lon="9.111930100185154"><ele>785.0</ele><time>2026-05-01T06:10:24Z</time></trkpt><trkpt lat="40.58360133255692" lon="9.111823398458968"><ele>785.5</ele><time>2026-05-01T06:10:25Z</time></trkpt><trkpt lat="40.583572770145665" lon="9.111698106825454"><ele>786.0</ele><time>2026-05-01T06:10:26Z</time></trkpt><trkpt lat="40.583554748739225" lon="9.111566534475273"><ele>786.1999999999999</ele><time>2026-05-01T06:10:27Z</time></trkpt><trkpt lat="40.58353153145526" lon="9.111437025311512"><ele>786.4</ele><time>2026-05-01T06:10:28Z</time></trkpt><trkpt lat="40.58351159440945" lon="9.111317716871254"><ele>786.6</ele><time>2026-05-01T06:10:29Z</time></trkpt><trkpt lat="40.58348831424251" lon="9.111199287133106"><ele>786.8</ele><time>2026-05-01T06:10:30Z</time></trkpt><trkpt lat="40.58346587633967" lon="9.111081599728749"><ele>787.0</ele><time>2026-05-01T06:10:31Z</time></trkpt><trkpt lat="40.58344594811765" lon="9.110992242533612"><ele>786.9999999999999</ele><time>2026-05-01T06:10:32Z</time></trkpt><trkpt lat="40.58341613732573" lon="9.110905324500884"><ele>787.0</ele><time>2026-05-01T06:10:33Z</time></trkpt><trkpt lat="40.58338929396065" lon="9.110776665791263"><ele>787.0</ele><time>2026-05-01T06:10:35Z</time></trkpt><trkpt lat="40.58338671093706" lon="9.110686967978676"><ele>787.0</ele><time>2026-05-01T06:10:36Z</time></trkpt><trkpt lat="40.58342625914586" lon="9.11051748174215"><ele>786.9999999999999</ele><time>2026-05-01T06:10:38Z</time></trkpt><trkpt lat="40.583436099830585" lon="9.110431227626663"><ele>787.0</ele><time>2026-05-01T06:10:39Z</time></trkpt><trkpt lat="40.58347638106029" lon="9.11025803015828"><ele>788.1666666666666</ele><time>2026-05-01T06:10:41Z</time></trkpt><trkpt lat="40.58350321188743" lon="9.110162802864634"><ele>789.3333333333333</ele><time>2026-05-01T06:10:42Z</time></trkpt><trkpt lat="40.58352523979138" lon="9.1100611143299"><ele>790.5</ele><time>2026-05-01T06:10:43Z</time></trkpt><trkpt lat="40.583545101514126" lon="9.109960413113045"><ele>791.6666666666667</ele><time>2026-05-01T06:10:44Z</time></trkpt><trkpt lat="40.58355310347449" lon="9.109859230229132"><ele>792.8333333333334</ele><time>2026-05-01T06:10:45Z</time></trkpt><trkpt lat="40.58356085349152" lon="9.109752398038978"><ele>794.0</ele><time>2026-05-01T06:10:46Z</time></trkpt><trkpt lat="40.58354984776594" lon="9.109634405284224"><ele>794.2</ele><time>2026-05-01T06:10:48Z</time></trkpt><trkpt lat="40.583489815775216" lon="9.109556149001806"><ele>794.4000000000001</ele><time>2026-05-01T06:10:50Z</time></trkpt><trkpt lat="40.58338339810528" lon="9.109501571684175"><ele>794.6</ele><time>2026-05-01T06:10:52Z</time></trkpt><trkpt lat="40.58332029339901" lon="9.10948568758389"><ele>794.8</ele><time>2026-05-01T06:10:53Z</time></trkpt><trkpt lat="40.5832211648389" lon="9.109476115013695"><ele>795.0</ele><time>2026-05-01T06:10:55Z</time></trkpt><trkpt lat="40.58312845339648" lon="9.109445547720016"><ele>795.0</ele><time>2026-05-01T06:10:57Z</time></trkpt><trkpt lat="40.58307731698584" lon="9.109349499530353"><ele>795.0</ele><time>2026-05-01T06:10:59Z</time></trkpt><trkpt lat="40.58303963238403" lon="9.109269927549317"><ele>795.0</ele><time>2026-05-01T06:11:00Z</time></trkpt><trkpt lat="40.58299051589403" lon="9.10919099413766"><ele>795.0</ele><time>2026-05-01T06:11:01Z</time></trkpt><trkpt lat="40.582942933622256" lon="9.10912408859509"><ele>795.0</ele><time>2026-05-01T06:11:02Z</time></trkpt><trkpt lat="40.58288856761335" lon="9.109036536848995"><ele>795.0</ele><time>2026-05-01T06:11:03Z</time></trkpt><trkpt lat="40.582836507560444" lon="9.10895385081683"><ele>797.8333333333334</ele><time>2026-05-01T06:11:04Z</time></trkpt><trkpt lat="40.58278617452854" lon="9.108869333459229"><ele>800.6666666666667</ele><time>2026-05-01T06:11:05Z</time></trkpt><trkpt lat="40.58273600947345" lon="9.108780166913453"><ele>803.5</ele><time>2026-05-01T06:11:06Z</time></trkpt><trkpt lat="40.5826891521441" lon="9.108694112760794"><ele>806.3333333333334</ele><time>2026-05-01T06:11:07Z</time></trkpt><trkpt lat="40.58263760510287" lon="9.108599772566688"><ele>809.1666666666667</ele><time>2026-05-01T06:11:08Z</time></trkpt><trkpt lat="40.58257790158932" lon="9.108510628938543"><ele>812.0</ele><time>2026-05-01T06:11:09Z</time></trkpt><trkpt lat="40.58252532282701" lon="9.108408529327612"><ele>812.0</ele><time>2026-05-01T06:11:10Z</time></trkpt><trkpt lat="40.582468257098114" lon="9.108314962946844"><ele>812.0</ele><time>2026-05-01T06:11:11Z</time></trkpt><trkpt lat="40.582404337064446" lon="9.10822115094777"><ele>812.0</ele><time>2026-05-01T06:11:12Z</time></trkpt><trkpt lat="40.58232329683831" lon="9.108112850157713"><ele>812.0</ele><time>2026-05-01T06:11:13Z</time></trkpt><trkpt lat="40.58223962661717" lon="9.108011106714386"><ele>812.0</ele><time>2026-05-01T06:11:14Z</time></trkpt><trkpt lat="40.582151721648366" lon="9.107921391103721"><ele>812.5</ele><time>2026-05-01T06:11:15Z</time></trkpt><trkpt lat="40.58207008753012" lon="9.107814520532596"><ele>813.0</ele><time>2026-05-01T06:11:16Z</time></trkpt><trkpt lat="40.58197840874024" lon="9.107706756595304"><ele>813.5</ele><time>2026-05-01T06:11:17Z</time></trkpt><trkpt lat="40.581893079423025" lon="9.107601546418737"><ele>814.0</ele><time>2026-05-01T06:11:18Z</time></trkpt><trkpt lat="40.58180548264533" lon="9.10748185113204"><ele>813.4000000000001</ele><time>2026-05-01T06:11:19Z</time></trkpt><trkpt lat="40.581726262171124" lon="9.10736851061978"><ele>812.8</ele><time>2026-05-01T06:11:20Z</time></trkpt><trkpt lat="40.58165859768769" lon="9.107253535843883"><ele>812.2</ele><time>2026-05-01T06:11:21Z</time></trkpt><trkpt lat="40.58160871503156" lon="9.107118236653909"><ele>811.5999999999999</ele><time>2026-05-01T06:11:22Z</time></trkpt><trkpt lat="40.58155828221774" lon="9.106999382421092"><ele>811.0</ele><time>2026-05-01T06:11:23Z</time></trkpt><trkpt lat="40.58151752538822" lon="9.106894542050163"><ele>811.0</ele><time>2026-05-01T06:11:24Z</time></trkpt><trkpt lat="40.58148055087366" lon="9.106798376203415"><ele>811.0</ele><time>2026-05-01T06:11:25Z</time></trkpt><trkpt lat="40.581440528925214" lon="9.106686313401555"><ele>811.0</ele><time>2026-05-01T06:11:27Z</time></trkpt><trkpt lat="40.58140703998947" lon="9.106610190727784"><ele>811.0</ele><time>2026-05-01T06:11:30Z</time></trkpt><trkpt lat="40.58131225085669" lon="9.106600841010795"><ele>811.0</ele><time>2026-05-01T06:11:31Z</time></trkpt><trkpt lat="40.58119612074925" lon="9.10662844882138"><ele>810.75</ele><time>2026-05-01T06:11:33Z</time></trkpt><trkpt lat="40.58104974999077" lon="9.106673870637472"><ele>810.5</ele><time>2026-05-01T06:11:35Z</time></trkpt><trkpt lat="40.580945408503865" lon="9.106684227519088"><ele>810.25</ele><time>2026-05-01T06:11:37Z</time></trkpt><trkpt lat="40.580883222485944" lon="9.10673383716014"><ele>810.0</ele><time>2026-05-01T06:11:39.001Z</time></trkpt><trkpt lat="40.580805842446885" lon="9.10657755804278"><ele>806.8</ele><time>2026-05-01T06:11:40.001Z</time></trkpt><trkpt lat="40.58076149119474" lon="9.106483855295117"><ele>803.6</ele><time>2026-05-01T06:11:41.001Z</time></trkpt><trkpt lat="40.580710783107214" lon="9.106361908012726"><ele>800.4000000000001</ele><time>2026-05-01T06:11:42.001Z</time></trkpt><trkpt lat="40.58065783311848" lon="9.106227958392775"><ele>797.2</ele><time>2026-05-01T06:11:43.001Z</time></trkpt><trkpt lat="40.58059814087573" lon="9.106081983381337"><ele>794.0</ele><time>2026-05-01T06:11:44.001Z</time></trkpt><trkpt lat="40.58052245572351" lon="9.105922646196024"><ele>794.0</ele><time>2026-05-01T06:11:45.001Z</time></trkpt><trkpt lat="40.58045992153774" lon="9.10575244318291"><ele>794.0</ele><time>2026-05-01T06:11:46.001Z</time></trkpt><trkpt lat="40.58039903136904" lon="9.105576346363241"><ele>794.0</ele><time>2026-05-01T06:11:47.001Z</time></trkpt><trkpt lat="40.58035127551324" lon="9.105389046906259"><ele>794.0</ele><time>2026-05-01T06:11:48.001Z</time></trkpt><trkpt lat="40.58032639224825" lon="9.105197946030614"><ele>796.3333333333334</ele><time>2026-05-01T06:11:49.001Z</time></trkpt><trkpt lat="40.580270831254516" lon="9.105011062012514"><ele>798.6666666666667</ele><time>2026-05-01T06:11:50.001Z</time></trkpt><trkpt lat="40.580227641293334" lon="9.104819490632956"><ele>801.0</ele><time>2026-05-01T06:11:51.001Z</time></trkpt><trkpt lat="40.5802027480002" lon="9.10462829271209"><ele>801.0</ele><time>2026-05-01T06:11:52.001Z</time></trkpt><trkpt lat="40.580162623825025" lon="9.104443901935852"><ele>801.0</ele><time>2026-05-01T06:11:53.001Z</time></trkpt><trkpt lat="40.58012126707386" lon="9.104260461440916"><ele>801.0</ele><time>2026-05-01T06:11:54.001Z</time></trkpt><trkpt lat="40.58007904750103" lon="9.104073193931553"><ele>801.0</ele><time>2026-05-01T06:11:55.001Z</time></trkpt><trkpt lat="40.58003559186712" lon="9.103880443800362"><ele>797.0</ele><time>2026-05-01T06:11:56.001Z</time></trkpt><trkpt lat="40.57998661829291" lon="9.103658544162334"><ele>793.0</ele><time>2026-05-01T06:11:57.001Z</time></trkpt><trkpt lat="40.57994542234529" lon="9.103470220229344"><ele>789.0</ele><time>2026-05-01T06:11:58.001Z</time></trkpt><trkpt lat="40.57990542058153" lon="9.103287355456896"><ele>787.25</ele><time>2026-05-01T06:11:59.001Z</time></trkpt><trkpt lat="40.57987407110183" lon="9.103113543976159"><ele>785.5</ele><time>2026-05-01T06:12:00.001Z</time></trkpt><trkpt lat="40.57985782591093" lon="9.102951786284398"><ele>783.75</ele><time>2026-05-01T06:12:01.001Z</time></trkpt><trkpt lat="40.579856719879146" lon="9.102761754262133"><ele>782.0</ele><time>2026-05-01T06:12:02.001Z</time></trkpt><trkpt lat="40.57987282767342" lon="9.102563249171283"><ele>781.6666666666667</ele><time>2026-05-01T06:12:03.001Z</time></trkpt><trkpt lat="40.57988997974001" lon="9.102356023488369"><ele>781.3333333333333</ele><time>2026-05-01T06:12:04.001Z</time></trkpt><trkpt lat="40.579904153660664" lon="9.102132723479468"><ele>781.0</ele><time>2026-05-01T06:12:05Z</time></trkpt><trkpt lat="40.57991791379092" lon="9.101914433565721"><ele>781.0</ele><time>2026-05-01T06:12:06Z</time></trkpt><trkpt lat="40.57992027950043" lon="9.101692083545927"><ele>781.0</ele><time>2026-05-01T06:12:07Z</time></trkpt><trkpt lat="40.57994327772335" lon="9.10149018996594"><ele>781.0</ele><time>2026-05-01T06:12:08Z</time></trkpt><trkpt lat="40.57995886644514" lon="9.101319493913255"><ele>783.1999999999999</ele><time>2026-05-01T06:12:09Z</time></trkpt><trkpt lat="40.57998144826525" lon="9.101145388222326"><ele>785.4</ele><time>2026-05-01T06:12:10Z</time></trkpt><trkpt lat="40.58000502499572" lon="9.10099901274238"><ele>787.6</ele><time>2026-05-01T06:12:11Z</time></trkpt><trkpt lat="40.580041447454185" lon="9.100873048883763"><ele>789.8</ele><time>2026-05-01T06:12:12Z</time></trkpt><trkpt lat="40.580086343518964" lon="9.10076516751982"><ele>792.0</ele><time>2026-05-01T06:12:13Z</time></trkpt><trkpt lat="40.580159763049494" lon="9.100686446059068"><ele>792.2</ele><time>2026-05-01T06:12:14Z</time></trkpt><trkpt lat="40.580234277006944" lon="9.100599105102386"><ele>792.4000000000001</ele><time>2026-05-01T06:12:14.999Z</time></trkpt><trkpt lat="40.580329003645204" lon="9.100577152786592"><ele>792.5999999999999</ele><time>2026-05-01T06:12:15.999Z</time></trkpt><trkpt lat="40.580432476360016" lon="9.100555919656573"><ele>792.8</ele><time>2026-05-01T06:12:17Z</time></trkpt><trkpt lat="40.58053642266324" lon="9.100509976484302"><ele>793.0</ele><time>2026-05-01T06:12:18Z</time></trkpt><trkpt lat="40.58064852113206" lon="9.100424522191364"><ele>786.5</ele><time>2026-05-01T06:12:19Z</time></trkpt><trkpt lat="40.58076108049516" lon="9.100353094675732"><ele>780.0</ele><time>2026-05-01T06:12:20Z</time></trkpt><trkpt lat="40.580862842948015" lon="9.100254446859479"><ele>773.5</ele><time>2026-05-01T06:12:21Z</time></trkpt><trkpt lat="40.580954088325974" lon="9.100158917216348"><ele>767.0</ele><time>2026-05-01T06:12:22Z</time></trkpt><trkpt lat="40.5810343913687" lon="9.10005959968658"><ele>767.0</ele><time>2026-05-01T06:12:23Z</time></trkpt><trkpt lat="40.58110801527932" lon="9.099948046302204"><ele>767.0</ele><time>2026-05-01T06:12:24Z</time></trkpt><trkpt lat="40.581171899311464" lon="9.09982856022128"><ele>767.0</ele><time>2026-05-01T06:12:25Z</time></trkpt><trkpt lat="40.58120889470438" lon="9.099715873882985"><ele>767.0</ele><time>2026-05-01T06:12:26Z</time></trkpt><trkpt lat="40.58122638821539" lon="9.099582003966336"><ele>767.0</ele><time>2026-05-01T06:12:27Z</time></trkpt><trkpt lat="40.581217892450596" lon="9.099453881958604"><ele>765.25</ele><time>2026-05-01T06:12:28Z</time></trkpt><trkpt lat="40.58120183656177" lon="9.099304794616689"><ele>763.5</ele><time>2026-05-01T06:12:29Z</time></trkpt><trkpt lat="40.58116779765451" lon="9.099150127461142"><ele>761.75</ele><time>2026-05-01T06:12:30Z</time></trkpt><trkpt lat="40.58112700826675" lon="9.099025288602249"><ele>760.0</ele><time>2026-05-01T06:12:31Z</time></trkpt><trkpt lat="40.581058071937434" lon="9.098907724128876"><ele>755.5</ele><time>2026-05-01T06:12:32Z</time></trkpt><trkpt lat="40.58096581031274" lon="9.098812863558152"><ele>751.0</ele><time>2026-05-01T06:12:33Z</time></trkpt><trkpt lat="40.580865819933535" lon="9.098714493168643"><ele>746.5</ele><time>2026-05-01T06:12:34Z</time></trkpt><trkpt lat="40.58075202895504" lon="9.09861709141626"><ele>742.0</ele><time>2026-05-01T06:12:35Z</time></trkpt><trkpt lat="40.58064238069283" lon="9.098515308294626"><ele>742.0</ele><time>2026-05-01T06:12:36Z</time></trkpt><trkpt lat="40.58053469905436" lon="9.09838332210923"><ele>742.0</ele><time>2026-05-01T06:12:37Z</time></trkpt><trkpt lat="40.58041824811736" lon="9.098274221197359"><ele>742.0</ele><time>2026-05-01T06:12:38Z</time></trkpt><trkpt lat="40.58029974920595" lon="9.0981642080175"><ele>742.0</ele><time>2026-05-01T06:12:39Z</time></trkpt><trkpt lat="40.580179090477856" lon="9.09804486923764"><ele>739.3333333333334</ele><time>2026-05-01T06:12:40Z</time></trkpt><trkpt lat="40.58006528878574" lon="9.097921934298968"><ele>736.6666666666666</ele><time>2026-05-01T06:12:41Z</time></trkpt><trkpt lat="40.57994969802344" lon="9.097785133934869"><ele>734.0</ele><time>2026-05-01T06:12:42Z</time></trkpt><trkpt lat="40.5798393028441" lon="9.097647435036743"><ele>734.0</ele><time>2026-05-01T06:12:43Z</time></trkpt><trkpt lat="40.57973431389062" lon="9.097491970647843"><ele>734.0</ele><time>2026-05-01T06:12:44Z</time></trkpt><trkpt lat="40.579639591896274" lon="9.097342429743254"><ele>734.0</ele><time>2026-05-01T06:12:45Z</time></trkpt><trkpt lat="40.579553390980706" lon="9.09717721002787"><ele>736.6666666666666</ele><time>2026-05-01T06:12:46Z</time></trkpt><trkpt lat="40.579480068080095" lon="9.097012084730224"><ele>739.3333333333334</ele><time>2026-05-01T06:12:47Z</time></trkpt><trkpt lat="40.5794161327473" lon="9.096833412157078"><ele>742.0</ele><time>2026-05-01T06:12:48Z</time></trkpt><trkpt lat="40.57935766501662" lon="9.096642683900358"><ele>739.5</ele><time>2026-05-01T06:12:49Z</time></trkpt><trkpt lat="40.57930500819454" lon="9.096463486151173"><ele>737.0</ele><time>2026-05-01T06:12:50Z</time></trkpt><trkpt lat="40.579257445006384" lon="9.09628319689582"><ele>734.5</ele><time>2026-05-01T06:12:51Z</time></trkpt><trkpt lat="40.579227542144736" lon="9.096091861295344"><ele>732.0</ele><time>2026-05-01T06:12:52Z</time></trkpt><trkpt lat="40.579220509375816" lon="9.09588320140761"><ele>730.6666666666666</ele><time>2026-05-01T06:12:53Z</time></trkpt><trkpt lat="40.579190659714065" lon="9.095683898085754"><ele>729.3333333333333</ele><time>2026-05-01T06:12:54Z</time></trkpt><trkpt lat="40.57918342627822" lon="9.095474664178274"><ele>728.0</ele><time>2026-05-01T06:12:55Z</time></trkpt><trkpt lat="40.57918281156521" lon="9.095253277953708"><ele>728.0</ele><time>2026-05-01T06:12:56Z</time></trkpt><trkpt lat="40.579205384129175" lon="9.095021011895549"><ele>728.0</ele><time>2026-05-01T06:12:57Z</time></trkpt><trkpt lat="40.579216117565174" lon="9.094788620595448"><ele>728.0</ele><time>2026-05-01T06:12:58Z</time></trkpt><trkpt lat="40.57922578321755" lon="9.09456269387364"><ele>728.25</ele><time>2026-05-01T06:12:59Z</time></trkpt><trkpt lat="40.57923310548176" lon="9.09436023240963"><ele>728.5</ele><time>2026-05-01T06:13:00Z</time></trkpt><trkpt lat="40.57922520347925" lon="9.094175466107554"><ele>728.75</ele><time>2026-05-01T06:13:01Z</time></trkpt><trkpt lat="40.57923700715755" lon="9.093993376887166"><ele>729.0</ele><time>2026-05-01T06:13:02Z</time></trkpt><trkpt lat="40.579247109684374" lon="9.093832593096556"><ele>729.5</ele><time>2026-05-01T06:13:03Z</time></trkpt><trkpt lat="40.57927296485768" lon="9.093685879112643"><ele>730.0</ele><time>2026-05-01T06:13:04Z</time></trkpt><trkpt lat="40.579315408693724" lon="9.093551227855544"><ele>730.5</ele><time>2026-05-01T06:13:05Z</time></trkpt><trkpt lat="40.579390115935745" lon="9.093434236795076"><ele>731.0</ele><time>2026-05-01T06:13:06Z</time></trkpt><trkpt lat="40.579472043366486" lon="9.093316867826271"><ele>724.25</ele><time>2026-05-01T06:13:07Z</time></trkpt><trkpt lat="40.57955749680651" lon="9.093196160667446"><ele>717.5</ele><time>2026-05-01T06:13:08Z</time></trkpt><trkpt lat="40.57964595895394" lon="9.09305897199253"><ele>710.75</ele><time>2026-05-01T06:13:09Z</time></trkpt><trkpt lat="40.57970437045354" lon="9.092903924110102"><ele>704.0</ele><time>2026-05-01T06:13:10Z</time></trkpt><trkpt lat="40.579776506354754" lon="9.092745795630094"><ele>704.0</ele><time>2026-05-01T06:13:11Z</time></trkpt><trkpt lat="40.579827236818424" lon="9.092584483414429"><ele>704.0</ele><time>2026-05-01T06:13:12Z</time></trkpt><trkpt lat="40.57987359129881" lon="9.09243342529536"><ele>704.0</ele><time>2026-05-01T06:13:13Z</time></trkpt><trkpt lat="40.57990626192827" lon="9.092286948168756"><ele>704.0</ele><time>2026-05-01T06:13:14Z</time></trkpt><trkpt lat="40.57992375531249" lon="9.09213640315128"><ele>702.75</ele><time>2026-05-01T06:13:15Z</time></trkpt><trkpt lat="40.57993069767192" lon="9.091974812158718"><ele>701.5</ele><time>2026-05-01T06:13:16Z</time></trkpt><trkpt lat="40.579921709762274" lon="9.091806559333289"><ele>700.25</ele><time>2026-05-01T06:13:17Z</time></trkpt><trkpt lat="40.579898467637484" lon="9.091625492646344"><ele>699.0</ele><time>2026-05-01T06:13:18Z</time></trkpt><trkpt lat="40.57987019133137" lon="9.091430933984968"><ele>698.75</ele><time>2026-05-01T06:13:19Z</time></trkpt><trkpt lat="40.57984297666679" lon="9.091250216561544"><ele>698.5</ele><time>2026-05-01T06:13:20Z</time></trkpt><trkpt lat="40.57982524976739" lon="9.091066098350076"><ele>698.25</ele><time>2026-05-01T06:13:21Z</time></trkpt><trkpt lat="40.579818221285066" lon="9.090886033812271"><ele>698.0</ele><time>2026-05-01T06:13:22Z</time></trkpt><trkpt lat="40.57983117860928" lon="9.090708484127438"><ele>698.0</ele><time>2026-05-01T06:13:23Z</time></trkpt><trkpt lat="40.57985794144422" lon="9.090515629780072"><ele>698.0</ele><time>2026-05-01T06:13:24Z</time></trkpt><trkpt lat="40.57990621142237" lon="9.090336706827975"><ele>698.0</ele><time>2026-05-01T06:13:25Z</time></trkpt><trkpt lat="40.57994782992958" lon="9.090140167708105"><ele>698.0</ele><time>2026-05-01T06:13:26Z</time></trkpt><trkpt lat="40.57997646218256" lon="9.089936217796291"><ele>699.3333333333333</ele><time>2026-05-01T06:13:27Z</time></trkpt><trkpt lat="40.58002251992635" lon="9.089733386016345"><ele>700.6666666666666</ele><time>2026-05-01T06:13:28Z</time></trkpt><trkpt lat="40.580074826740784" lon="9.089532749723643"><ele>702.0</ele><time>2026-05-01T06:13:29Z</time></trkpt><trkpt lat="40.580131376612385" lon="9.089327535328426"><ele>702.0</ele><time>2026-05-01T06:13:30Z</time></trkpt><trkpt lat="40.580202998387655" lon="9.089121186293035"><ele>702.0</ele><time>2026-05-01T06:13:31Z</time></trkpt><trkpt lat="40.580276370391104" lon="9.08892590058009"><ele>702.0</ele><time>2026-05-01T06:13:32Z</time></trkpt><trkpt lat="40.58035215898795" lon="9.088734161598804"><ele>695.25</ele><time>2026-05-01T06:13:33Z</time></trkpt><trkpt lat="40.58041875426821" lon="9.088563688265461"><ele>688.5</ele><time>2026-05-01T06:13:34Z</time></trkpt><trkpt lat="40.5804781655988" lon="9.088414860993062"><ele>681.75</ele><time>2026-05-01T06:13:35Z</time></trkpt><trkpt lat="40.58052354517644" lon="9.088273195145618"><ele>675.0</ele><time>2026-05-01T06:13:36Z</time></trkpt><trkpt lat="40.58055899136828" lon="9.088124203985583"><ele>674.75</ele><time>2026-05-01T06:13:37Z</time></trkpt><trkpt lat="40.580584398483055" lon="9.08795603098445"><ele>674.5</ele><time>2026-05-01T06:13:38Z</time></trkpt><trkpt lat="40.580602016790166" lon="9.087778246149053"><ele>674.25</ele><time>2026-05-01T06:13:39Z</time></trkpt><trkpt lat="40.58060339868843" lon="9.087589050308724"><ele>674.0</ele><time>2026-05-01T06:13:40Z</time></trkpt><trkpt lat="40.58060176394144" lon="9.087386807979756"><ele>672.6666666666666</ele><time>2026-05-01T06:13:41Z</time></trkpt><trkpt lat="40.58060544181177" lon="9.087184293357181"><ele>671.3333333333334</ele><time>2026-05-01T06:13:42Z</time></trkpt><trkpt lat="40.580611096964155" lon="9.086974920879394"><ele>670.0</ele><time>2026-05-01T06:13:43Z</time></trkpt><trkpt lat="40.58061465397473" lon="9.086767523418485"><ele>668.25</ele><time>2026-05-01T06:13:44Z</time></trkpt><trkpt lat="40.58063626974197" lon="9.086568152397026"><ele>666.5</ele><time>2026-05-01T06:13:45Z</time></trkpt><trkpt lat="40.58062659254876" lon="9.086378561053158"><ele>664.75</ele><time>2026-05-01T06:13:46Z</time></trkpt><trkpt lat="40.58062656949103" lon="9.086191505385992"><ele>663.0</ele><time>2026-05-01T06:13:47Z</time></trkpt><trkpt lat="40.58061919057293" lon="9.086005512771562"><ele>663.0</ele><time>2026-05-01T06:13:48Z</time></trkpt><trkpt lat="40.580597185319014" lon="9.085816148561255"><ele>663.0</ele><time>2026-05-01T06:13:49Z</time></trkpt><trkpt lat="40.58055830842807" lon="9.085617766435867"><ele>663.0</ele><time>2026-05-01T06:13:50Z</time></trkpt><trkpt lat="40.58051427524153" lon="9.08543500108247"><ele>663.0</ele><time>2026-05-01T06:13:51Z</time></trkpt><trkpt lat="40.58046655886975" lon="9.085260152771928"><ele>663.5999999999999</ele><time>2026-05-01T06:13:52Z</time></trkpt><trkpt lat="40.580428000817804" lon="9.085112129671092"><ele>664.1999999999999</ele><time>2026-05-01T06:13:53Z</time></trkpt><trkpt lat="40.580386267038186" lon="9.084988765907012"><ele>664.8</ele><time>2026-05-01T06:13:54Z</time></trkpt><trkpt lat="40.58034054477869" lon="9.084887350555967"><ele>665.4</ele><time>2026-05-01T06:13:55Z</time></trkpt><trkpt lat="40.580280494267015" lon="9.084803636552524"><ele>666.0</ele><time>2026-05-01T06:13:56Z</time></trkpt><trkpt lat="40.58019930673026" lon="9.084738376559784"><ele>666.0</ele><time>2026-05-01T06:13:57Z</time></trkpt><trkpt lat="40.580108496872214" lon="9.084672918731735"><ele>666.0</ele><time>2026-05-01T06:13:58Z</time></trkpt><trkpt lat="40.58003418825702" lon="9.08460397520876"><ele>666.0</ele><time>2026-05-01T06:13:59Z</time></trkpt><trkpt lat="40.579976505639436" lon="9.084535171942221"><ele>666.0</ele><time>2026-05-01T06:14:00Z</time></trkpt><trkpt lat="40.57995217420794" lon="9.084353892598784"><ele>666.0</ele><time>2026-05-01T06:14:02Z</time></trkpt><trkpt lat="40.579983159489686" lon="9.08426923807813"><ele>666.0</ele><time>2026-05-01T06:14:03.001Z</time></trkpt><trkpt lat="40.58003173200219" lon="9.084210346566604"><ele>666.0</ele><time>2026-05-01T06:14:04.001Z</time></trkpt><trkpt lat="40.58010562711946" lon="9.08416460694767"><ele>666.0</ele><time>2026-05-01T06:14:05.001Z</time></trkpt><trkpt lat="40.58018470168206" lon="9.084134210414614"><ele>666.0</ele><time>2026-05-01T06:14:06.001Z</time></trkpt><trkpt lat="40.58025044951026" lon="9.084132947703752"><ele>666.0</ele><time>2026-05-01T06:14:07.001Z</time></trkpt><trkpt lat="40.58030658091176" lon="9.084176366047458"><ele>666.0</ele><time>2026-05-01T06:14:08.001Z</time></trkpt><trkpt lat="40.580355597506376" lon="9.08423061137552"><ele>666.0</ele><time>2026-05-01T06:14:09.001Z</time></trkpt><trkpt lat="40.58040210343394" lon="9.084295024209135"><ele>663.5</ele><time>2026-05-01T06:14:10.001Z</time></trkpt><trkpt lat="40.580439291859264" lon="9.08437312803404"><ele>661.0</ele><time>2026-05-01T06:14:11Z</time></trkpt><trkpt lat="40.58048201216107" lon="9.084460221647836"><ele>658.5</ele><time>2026-05-01T06:14:12Z</time></trkpt><trkpt lat="40.58053015440268" lon="9.084549004381815"><ele>656.0</ele><time>2026-05-01T06:14:13Z</time></trkpt><trkpt lat="40.58058119811463" lon="9.084643148844462"><ele>653.5</ele><time>2026-05-01T06:14:14Z</time></trkpt><trkpt lat="40.58063259706117" lon="9.084745022782638"><ele>651.0</ele><time>2026-05-01T06:14:15Z</time></trkpt><trkpt lat="40.580691056877505" lon="9.084852355039331"><ele>652.0</ele><time>2026-05-01T06:14:16Z</time></trkpt><trkpt lat="40.58074655392357" lon="9.084979965551671"><ele>653.0</ele><time>2026-05-01T06:14:17Z</time></trkpt><trkpt lat="40.580808146629906" lon="9.085099033219013"><ele>654.0</ele><time>2026-05-01T06:14:18Z</time></trkpt><trkpt lat="40.58087503521212" lon="9.085226340863223"><ele>655.0</ele><time>2026-05-01T06:14:19Z</time></trkpt><trkpt lat="40.58094304853028" lon="9.085359108643784"><ele>655.0</ele><time>2026-05-01T06:14:20Z</time></trkpt><trkpt lat="40.58101976255585" lon="9.085493846522283"><ele>655.0</ele><time>2026-05-01T06:14:21Z</time></trkpt><trkpt lat="40.581097567456005" lon="9.085643820322785"><ele>655.0</ele><time>2026-05-01T06:14:22Z</time></trkpt><trkpt lat="40.581177834642816" lon="9.08581131563276"><ele>655.0</ele><time>2026-05-01T06:14:23Z</time></trkpt><trkpt lat="40.58125058248121" lon="9.085990350430441"><ele>651.0</ele><time>2026-05-01T06:14:23.999Z</time></trkpt><trkpt lat="40.58131571682876" lon="9.086170442142922"><ele>647.0</ele><time>2026-05-01T06:14:24.999Z</time></trkpt><trkpt lat="40.581385818913944" lon="9.086355574228982"><ele>643.0</ele><time>2026-05-01T06:14:25.999Z</time></trkpt><trkpt lat="40.58143672092776" lon="9.086535662488647"><ele>643.75</ele><time>2026-05-01T06:14:26.999Z</time></trkpt><trkpt lat="40.58149080399014" lon="9.086696036752175"><ele>644.5</ele><time>2026-05-01T06:14:28Z</time></trkpt><trkpt lat="40.58153523224773" lon="9.086858059626291"><ele>645.25</ele><time>2026-05-01T06:14:29Z</time></trkpt><trkpt lat="40.58157292349878" lon="9.087027965021187"><ele>646.0</ele><time>2026-05-01T06:14:30Z</time></trkpt><trkpt lat="40.58159900377914" lon="9.087193466641786"><ele>646.0</ele><time>2026-05-01T06:14:31Z</time></trkpt><trkpt lat="40.58160943666378" lon="9.087379254036254"><ele>646.0</ele><time>2026-05-01T06:14:32Z</time></trkpt><trkpt lat="40.58161735860725" lon="9.087570670883796"><ele>646.0</ele><time>2026-05-01T06:14:33Z</time></trkpt><trkpt lat="40.58161534053017" lon="9.08776654729814"><ele>646.0</ele><time>2026-05-01T06:14:34Z</time></trkpt><trkpt lat="40.581609280433426" lon="9.087965585394036"><ele>646.3333333333334</ele><time>2026-05-01T06:14:35Z</time></trkpt><trkpt lat="40.58160961475156" lon="9.088178504219341"><ele>646.6666666666666</ele><time>2026-05-01T06:14:36Z</time></trkpt><trkpt lat="40.58160847386839" lon="9.088391575192757"><ele>647.0</ele><time>2026-05-01T06:14:37Z</time></trkpt><trkpt lat="40.58161018717641" lon="9.08860926810316"><ele>647.0</ele><time>2026-05-01T06:14:38Z</time></trkpt><trkpt lat="40.581609216940876" lon="9.08882122282938"><ele>647.0</ele><time>2026-05-01T06:14:39Z</time></trkpt><trkpt lat="40.5816099744941" lon="9.08903869551366"><ele>647.0</ele><time>2026-05-01T06:14:40Z</time></trkpt><trkpt lat="40.58160933050169" lon="9.089257969309347"><ele>646.6666666666666</ele><time>2026-05-01T06:14:41Z</time></trkpt><trkpt lat="40.58160995279559" lon="9.08948281145503"><ele>646.3333333333334</ele><time>2026-05-01T06:14:42Z</time></trkpt><trkpt lat="40.581600766155596" lon="9.089712139604343"><ele>646.0</ele><time>2026-05-01T06:14:43Z</time></trkpt><trkpt lat="40.58162979688857" lon="9.089931686192664"><ele>645.3333333333334</ele><time>2026-05-01T06:14:44Z</time></trkpt><trkpt lat="40.581637368968934" lon="9.090148652687551"><ele>644.6666666666666</ele><time>2026-05-01T06:14:45Z</time></trkpt><trkpt lat="40.58164386074413" lon="9.090363067819652"><ele>644.0</ele><time>2026-05-01T06:14:46Z</time></trkpt><trkpt lat="40.58165705169238" lon="9.090583015905516"><ele>643.0</ele><time>2026-05-01T06:14:47Z</time></trkpt><trkpt lat="40.58166967456702" lon="9.090802975348678"><ele>642.0</ele><time>2026-05-01T06:14:48Z</time></trkpt><trkpt lat="40.581690960267025" lon="9.09102603367345"><ele>641.0</ele><time>2026-05-01T06:14:49Z</time></trkpt><trkpt lat="40.58172753244777" lon="9.09125085111341"><ele>641.0</ele><time>2026-05-01T06:14:50Z</time></trkpt><trkpt lat="40.58177670304051" lon="9.091475004643991"><ele>641.0</ele><time>2026-05-01T06:14:51Z</time></trkpt><trkpt lat="40.581834211907825" lon="9.091684418465434"><ele>641.0</ele><time>2026-05-01T06:14:52Z</time></trkpt><trkpt lat="40.58188414660637" lon="9.091891640950942"><ele>641.0</ele><time>2026-05-01T06:14:53Z</time></trkpt><trkpt lat="40.58193599140888" lon="9.092084208124563"><ele>641.0</ele><time>2026-05-01T06:14:54Z</time></trkpt><trkpt lat="40.58197313088894" lon="9.092256062275334"><ele>641.0</ele><time>2026-05-01T06:14:55Z</time></trkpt><trkpt lat="40.58199658499493" lon="9.092426115409259"><ele>641.0</ele><time>2026-05-01T06:14:56Z</time></trkpt><trkpt lat="40.582001255978675" lon="9.09260749027571"><ele>640.75</ele><time>2026-05-01T06:14:57Z</time></trkpt><trkpt lat="40.581992446454805" lon="9.092801288222304"><ele>640.5</ele><time>2026-05-01T06:14:58Z</time></trkpt><trkpt lat="40.58198728351848" lon="9.09300334290947"><ele>640.25</ele><time>2026-05-01T06:14:59Z</time></trkpt><trkpt lat="40.58198854826044" lon="9.093185623330656"><ele>640.0</ele><time>2026-05-01T06:15:00Z</time></trkpt><trkpt lat="40.58199845979463" lon="9.09333736122308"><ele>637.8</ele><time>2026-05-01T06:15:01Z</time></trkpt><trkpt lat="40.582020021722734" lon="9.093479846709466"><ele>635.6</ele><time>2026-05-01T06:15:02Z</time></trkpt><trkpt lat="40.582062734184184" lon="9.093604540193525"><ele>633.4</ele><time>2026-05-01T06:15:03Z</time></trkpt><trkpt lat="40.58211411692568" lon="9.09370481502384"><ele>631.2</ele><time>2026-05-01T06:15:04Z</time></trkpt><trkpt lat="40.58220432263335" lon="9.093755891568625"><ele>629.0</ele><time>2026-05-01T06:15:05Z</time></trkpt><trkpt lat="40.58229573543188" lon="9.093801334653062"><ele>629.0</ele><time>2026-05-01T06:15:06Z</time></trkpt><trkpt lat="40.582405358995324" lon="9.093851732766563"><ele>629.0</ele><time>2026-05-01T06:15:07Z</time></trkpt><trkpt lat="40.58252288884509" lon="9.093919866369589"><ele>629.0</ele><time>2026-05-01T06:15:08Z</time></trkpt><trkpt lat="40.58266114716768" lon="9.093973546942298"><ele>629.0</ele><time>2026-05-01T06:15:09Z</time></trkpt><trkpt lat="40.58281385170121" lon="9.094034860302099"><ele>628.3333333333333</ele><time>2026-05-01T06:15:10Z</time></trkpt><trkpt lat="40.582965021268336" lon="9.094097603951521"><ele>627.6666666666666</ele><time>2026-05-01T06:15:11Z</time></trkpt><trkpt lat="40.58312074103537" lon="9.094165415672025"><ele>627.0</ele><time>2026-05-01T06:15:12Z</time></trkpt><trkpt lat="40.583278303436096" lon="9.094238549430276"><ele>627.0</ele><time>2026-05-01T06:15:13Z</time></trkpt><trkpt lat="40.583429213720784" lon="9.094315137513243"><ele>627.0</ele><time>2026-05-01T06:15:14Z</time></trkpt><trkpt lat="40.58358210524367" lon="9.094403682546758"><ele>627.0</ele><time>2026-05-01T06:15:15Z</time></trkpt><trkpt lat="40.583727216290576" lon="9.09451235277943"><ele>622.0</ele><time>2026-05-01T06:15:16Z</time></trkpt><trkpt lat="40.5838749761131" lon="9.09463034487212"><ele>617.0</ele><time>2026-05-01T06:15:17Z</time></trkpt><trkpt lat="40.584027641716915" lon="9.094754548659836"><ele>612.0</ele><time>2026-05-01T06:15:18Z</time></trkpt><trkpt lat="40.58418278717473" lon="9.094877786605544"><ele>609.6666666666666</ele><time>2026-05-01T06:15:19Z</time></trkpt><trkpt lat="40.58433986792942" lon="9.095007533268745"><ele>607.3333333333333</ele><time>2026-05-01T06:15:20Z</time></trkpt><trkpt lat="40.584483476763126" lon="9.095131541347952"><ele>605.0</ele><time>2026-05-01T06:15:21Z</time></trkpt><trkpt lat="40.58462092407475" lon="9.095251973110923"><ele>605.0</ele><time>2026-05-01T06:15:22Z</time></trkpt><trkpt lat="40.584757644326736" lon="9.095392644352438"><ele>605.0</ele><time>2026-05-01T06:15:23Z</time></trkpt><trkpt lat="40.58488282940487" lon="9.095542098887375"><ele>605.0</ele><time>2026-05-01T06:15:24Z</time></trkpt><trkpt lat="40.585001761681724" lon="9.09570493804497"><ele>607.3333333333333</ele><time>2026-05-01T06:15:25Z</time></trkpt><trkpt lat="40.58513682493943" lon="9.095879983147423"><ele>609.6666666666666</ele><time>2026-05-01T06:15:26Z</time></trkpt><trkpt lat="40.58525659610589" lon="9.096062036764305"><ele>612.0</ele><time>2026-05-01T06:15:27Z</time></trkpt><trkpt lat="40.585387748387504" lon="9.09624815358403"><ele>608.6666666666666</ele><time>2026-05-01T06:15:28Z</time></trkpt><trkpt lat="40.585505216493125" lon="9.096438306766009"><ele>605.3333333333333</ele><time>2026-05-01T06:15:29Z</time></trkpt><trkpt lat="40.585627115230935" lon="9.096636977753883"><ele>602.0</ele><time>2026-05-01T06:15:30Z</time></trkpt><trkpt lat="40.58580232490477" lon="9.096852749440023"><ele>602.0</ele><time>2026-05-01T06:15:31Z</time></trkpt><trkpt lat="40.58593934930427" lon="9.097058325662882"><ele>602.0</ele><time>2026-05-01T06:15:32Z</time></trkpt><trkpt lat="40.58607757709025" lon="9.097254038155956"><ele>602.0</ele><time>2026-05-01T06:15:33Z</time></trkpt><trkpt lat="40.58620032660681" lon="9.09744732227449"><ele>599.6666666666666</ele><time>2026-05-01T06:15:34Z</time></trkpt><trkpt lat="40.58631357046407" lon="9.097617433206024"><ele>597.3333333333334</ele><time>2026-05-01T06:15:35Z</time></trkpt><trkpt lat="40.58642586608209" lon="9.097782726577215"><ele>595.0</ele><time>2026-05-01T06:15:36Z</time></trkpt><trkpt lat="40.586521010060665" lon="9.097904903133989"><ele>595.0</ele><time>2026-05-01T06:15:37Z</time></trkpt><trkpt lat="40.586612446971436" lon="9.097985666336717"><ele>595.0</ele><time>2026-05-01T06:15:38Z</time></trkpt><trkpt lat="40.586704669132274" lon="9.098009815007451"><ele>595.0</ele><time>2026-05-01T06:15:39Z</time></trkpt><trkpt lat="40.586797977886015" lon="9.098012311607276"><ele>595.0</ele><time>2026-05-01T06:15:40Z</time></trkpt><trkpt lat="40.58690583876948" lon="9.097998630358193"><ele>595.0</ele><time>2026-05-01T06:15:41Z</time></trkpt><trkpt lat="40.58702757876675" lon="9.097975663921329"><ele>592.3333333333334</ele><time>2026-05-01T06:15:42Z</time></trkpt><trkpt lat="40.587172202472736" lon="9.09796849426718"><ele>589.6666666666666</ele><time>2026-05-01T06:15:43Z</time></trkpt><trkpt lat="40.58732400492407" lon="9.097929183682211"><ele>587.0</ele><time>2026-05-01T06:15:44Z</time></trkpt><trkpt lat="40.58748136074869" lon="9.09789346705115"><ele>587.0</ele><time>2026-05-01T06:15:45Z</time></trkpt><trkpt lat="40.587629491961145" lon="9.097861257637414"><ele>587.0</ele><time>2026-05-01T06:15:46Z</time></trkpt><trkpt lat="40.58776346555372" lon="9.097833671463805"><ele>587.0</ele><time>2026-05-01T06:15:47Z</time></trkpt><trkpt lat="40.58789335144661" lon="9.097833258858685"><ele>587.0</ele><time>2026-05-01T06:15:48Z</time></trkpt><trkpt lat="40.58803023139489" lon="9.09785848429248"><ele>585.3333333333333</ele><time>2026-05-01T06:15:49Z</time></trkpt><trkpt lat="40.588177421359276" lon="9.09790372220117"><ele>583.6666666666666</ele><time>2026-05-01T06:15:50Z</time></trkpt><trkpt lat="40.5883327089804" lon="9.097943213110813"><ele>582.0</ele><time>2026-05-01T06:15:51Z</time></trkpt><trkpt lat="40.58849910829077" lon="9.097982646566566"><ele>582.0</ele><time>2026-05-01T06:15:52Z</time></trkpt><trkpt lat="40.5886712445894" lon="9.098023284366779"><ele>582.0</ele><time>2026-05-01T06:15:53Z</time></trkpt><trkpt lat="40.58885967126711" lon="9.0980756125341"><ele>582.0</ele><time>2026-05-01T06:15:54Z</time></trkpt><trkpt lat="40.589020173747166" lon="9.09811507067701"><ele>579.0</ele><time>2026-05-01T06:15:55Z</time></trkpt><trkpt lat="40.589170451274406" lon="9.09814284843615"><ele>576.0</ele><time>2026-05-01T06:15:56Z</time></trkpt><trkpt lat="40.5893223093765" lon="9.09815181275973"><ele>573.0</ele><time>2026-05-01T06:15:57Z</time></trkpt><trkpt lat="40.58947512174391" lon="9.098144098699553"><ele>571.6666666666666</ele><time>2026-05-01T06:15:58Z</time></trkpt><trkpt lat="40.58964011988225" lon="9.098112505107583"><ele>570.3333333333333</ele><time>2026-05-01T06:15:59Z</time></trkpt><trkpt lat="40.58981014999783" lon="9.098071538587847"><ele>569.0</ele><time>2026-05-01T06:16:00Z</time></trkpt><trkpt lat="40.58998774749916" lon="9.09802100658038"><ele>569.0</ele><time>2026-05-01T06:16:01Z</time></trkpt><trkpt lat="40.59016654036084" lon="9.097980240769786"><ele>569.0</ele><time>2026-05-01T06:16:02Z</time></trkpt><trkpt lat="40.59033576244915" lon="9.097943954411168"><ele>569.0</ele><time>2026-05-01T06:16:03Z</time></trkpt><trkpt lat="40.59049511565701" lon="9.097909538101963"><ele>568.0</ele><time>2026-05-01T06:16:04Z</time></trkpt><trkpt lat="40.59064793813594" lon="9.097879501974408"><ele>567.0</ele><time>2026-05-01T06:16:05Z</time></trkpt><trkpt lat="40.59078216373744" lon="9.097848012174694"><ele>566.0</ele><time>2026-05-01T06:16:06Z</time></trkpt><trkpt lat="40.59090160446157" lon="9.097846279329685"><ele>565.0</ele><time>2026-05-01T06:16:07Z</time></trkpt><trkpt lat="40.59101142744786" lon="9.097855222706052"><ele>565.0</ele><time>2026-05-01T06:16:08Z</time></trkpt><trkpt lat="40.59112700967947" lon="9.09789582080898"><ele>565.0</ele><time>2026-05-01T06:16:09Z</time></trkpt><trkpt lat="40.59124539752519" lon="9.097970548483508"><ele>565.0</ele><time>2026-05-01T06:16:10Z</time></trkpt><trkpt lat="40.59136462572971" lon="9.098067331733068"><ele>565.0</ele><time>2026-05-01T06:16:11Z</time></trkpt><trkpt lat="40.59148367979821" lon="9.09817772286863"><ele>566.3333333333334</ele><time>2026-05-01T06:16:12Z</time></trkpt><trkpt lat="40.591595562258874" lon="9.098304062814435"><ele>567.6666666666666</ele><time>2026-05-01T06:16:13Z</time></trkpt><trkpt lat="40.591703051879705" lon="9.09844268362404"><ele>569.0</ele><time>2026-05-01T06:16:14Z</time></trkpt><trkpt lat="40.59179565202583" lon="9.098602609937743"><ele>569.0</ele><time>2026-05-01T06:16:15Z</time></trkpt><trkpt lat="40.59189252446559" lon="9.098759646224872"><ele>569.0</ele><time>2026-05-01T06:16:16Z</time></trkpt><trkpt lat="40.59199215160657" lon="9.0989004836583"><ele>569.0</ele><time>2026-05-01T06:16:17Z</time></trkpt><trkpt lat="40.592100320414154" lon="9.099019392990474"><ele>569.0</ele><time>2026-05-01T06:16:18Z</time></trkpt><trkpt lat="40.592219257949665" lon="9.0991221433517"><ele>566.6666666666666</ele><time>2026-05-01T06:16:19Z</time></trkpt><trkpt lat="40.59235417655086" lon="9.099208591132156"><ele>564.3333333333334</ele><time>2026-05-01T06:16:20Z</time></trkpt><trkpt lat="40.59250928157235" lon="9.099294560872423"><ele>562.0</ele><time>2026-05-01T06:16:21Z</time></trkpt><trkpt lat="40.59267586412307" lon="9.099374393365695"><ele>555.3333333333334</ele><time>2026-05-01T06:16:22Z</time></trkpt><trkpt lat="40.59284064178604" lon="9.099455619261631"><ele>548.6666666666666</ele><time>2026-05-01T06:16:23Z</time></trkpt><trkpt lat="40.59300828092647" lon="9.099533253785891"><ele>542.0</ele><time>2026-05-01T06:16:24Z</time></trkpt><trkpt lat="40.59316630781689" lon="9.099620980896225"><ele>542.0</ele><time>2026-05-01T06:16:25Z</time></trkpt><trkpt lat="40.59331788297364" lon="9.099697647565325"><ele>542.0</ele><time>2026-05-01T06:16:25.999Z</time></trkpt><trkpt lat="40.593464886484995" lon="9.099802641953895"><ele>542.0</ele><time>2026-05-01T06:16:26.999Z</time></trkpt><trkpt lat="40.593601857748105" lon="9.09990671457481"><ele>541.25</ele><time>2026-05-01T06:16:28Z</time></trkpt><trkpt lat="40.59371692511273" lon="9.100025242181049"><ele>540.5</ele><time>2026-05-01T06:16:29Z</time></trkpt><trkpt lat="40.59381936286507" lon="9.100145133782018"><ele>539.75</ele><time>2026-05-01T06:16:30Z</time></trkpt><trkpt lat="40.59390109259516" lon="9.100284501909593"><ele>539.0</ele><time>2026-05-01T06:16:31Z</time></trkpt><trkpt lat="40.593973523648664" lon="9.100442472488542"><ele>539.0</ele><time>2026-05-01T06:16:32Z</time></trkpt><trkpt lat="40.59402817429572" lon="9.100615483181153"><ele>539.0</ele><time>2026-05-01T06:16:33Z</time></trkpt><trkpt lat="40.59407258546428" lon="9.100807146459292"><ele>539.0</ele><time>2026-05-01T06:16:34Z</time></trkpt><trkpt lat="40.594125440347376" lon="9.100985689393942"><ele>539.0</ele><time>2026-05-01T06:16:35Z</time></trkpt><trkpt lat="40.59418914152427" lon="9.101150624157247"><ele>543.0</ele><time>2026-05-01T06:16:36Z</time></trkpt><trkpt lat="40.59426551401386" lon="9.101303078252833"><ele>547.0</ele><time>2026-05-01T06:16:37Z</time></trkpt><trkpt lat="40.5943634038749" lon="9.101451924144728"><ele>551.0</ele><time>2026-05-01T06:16:38Z</time></trkpt><trkpt lat="40.59448046767269" lon="9.101599356416418"><ele>546.0</ele><time>2026-05-01T06:16:39Z</time></trkpt><trkpt lat="40.59461019594572" lon="9.101738565250953"><ele>541.0</ele><time>2026-05-01T06:16:40Z</time></trkpt><trkpt lat="40.59475714765377" lon="9.101882283047022"><ele>536.0</ele><time>2026-05-01T06:16:41Z</time></trkpt><trkpt lat="40.59490771845821" lon="9.102037498208732"><ele>536.0</ele><time>2026-05-01T06:16:42Z</time></trkpt><trkpt lat="40.59505507383934" lon="9.102195898194529"><ele>536.0</ele><time>2026-05-01T06:16:43Z</time></trkpt><trkpt lat="40.595205828539704" lon="9.10235502870359"><ele>536.0</ele><time>2026-05-01T06:16:44Z</time></trkpt><trkpt lat="40.59535873750413" lon="9.102517142640403"><ele>532.6666666666666</ele><time>2026-05-01T06:16:45Z</time></trkpt><trkpt lat="40.595511580735625" lon="9.102679288496848"><ele>529.3333333333334</ele><time>2026-05-01T06:16:46Z</time></trkpt><trkpt lat="40.59566533026655" lon="9.102847960406537"><ele>526.0</ele><time>2026-05-01T06:16:47Z</time></trkpt><trkpt lat="40.5958079664414" lon="9.103014777269147"><ele>526.0</ele><time>2026-05-01T06:16:48Z</time></trkpt><trkpt lat="40.59595660956221" lon="9.10317772479346"><ele>526.0</ele><time>2026-05-01T06:16:49Z</time></trkpt><trkpt lat="40.59609765423701" lon="9.103348819227794"><ele>526.0</ele><time>2026-05-01T06:16:50Z</time></trkpt><trkpt lat="40.596240044646464" lon="9.103538241103099"><ele>524.3333333333334</ele><time>2026-05-01T06:16:51Z</time></trkpt><trkpt lat="40.596380639373095" lon="9.103725656649496"><ele>522.6666666666666</ele><time>2026-05-01T06:16:52Z</time></trkpt><trkpt lat="40.59651776040384" lon="9.103912588003057"><ele>521.0</ele><time>2026-05-01T06:16:53Z</time></trkpt><trkpt lat="40.59664684474094" lon="9.104091081229132"><ele>524.3333333333333</ele><time>2026-05-01T06:16:54Z</time></trkpt><trkpt lat="40.5967677617191" lon="9.10425744951753"><ele>527.6666666666666</ele><time>2026-05-01T06:16:55Z</time></trkpt><trkpt lat="40.596874504336036" lon="9.104406712584275"><ele>531.0</ele><time>2026-05-01T06:16:56Z</time></trkpt><trkpt lat="40.59696127478289" lon="9.104536627203458"><ele>527.25</ele><time>2026-05-01T06:16:57Z</time></trkpt><trkpt lat="40.597032836098755" lon="9.104653294611664"><ele>523.5</ele><time>2026-05-01T06:16:58Z</time></trkpt><trkpt lat="40.59708806165697" lon="9.104781025119536"><ele>519.75</ele><time>2026-05-01T06:16:59Z</time></trkpt><trkpt lat="40.59712725879769" lon="9.104934287400274"><ele>516.0</ele><time>2026-05-01T06:17:00Z</time></trkpt><trkpt lat="40.597153127766084" lon="9.105110560859137"><ele>516.0</ele><time>2026-05-01T06:17:01Z</time></trkpt><trkpt lat="40.597175350172655" lon="9.105297274200066"><ele>516.0</ele><time>2026-05-01T06:17:02Z</time></trkpt><trkpt lat="40.59720541678031" lon="9.105477327359427"><ele>516.0</ele><time>2026-05-01T06:17:03Z</time></trkpt><trkpt lat="40.59725139456214" lon="9.105648228621384"><ele>516.0</ele><time>2026-05-01T06:17:04Z</time></trkpt><trkpt lat="40.59731623726583" lon="9.105805263460104"><ele>516.0</ele><time>2026-05-01T06:17:05Z</time></trkpt><trkpt lat="40.597399810282695" lon="9.10595455257549"><ele>516.0</ele><time>2026-05-01T06:17:06Z</time></trkpt><trkpt lat="40.59750054236943" lon="9.10609557802012"><ele>516.0</ele><time>2026-05-01T06:17:07Z</time></trkpt><trkpt lat="40.597604889618246" lon="9.106223905228573"><ele>516.0</ele><time>2026-05-01T06:17:08Z</time></trkpt><trkpt lat="40.59771450402223" lon="9.106333960779038"><ele>516.0</ele><time>2026-05-01T06:17:09Z</time></trkpt><trkpt lat="40.59782463991945" lon="9.106418506046719"><ele>516.0</ele><time>2026-05-01T06:17:10.001Z</time></trkpt><trkpt lat="40.59794190523539" lon="9.106480542844052"><ele>516.0</ele><time>2026-05-01T06:17:11.001Z</time></trkpt><trkpt lat="40.598072767291754" lon="9.106514688718498"><ele>516.0</ele><time>2026-05-01T06:17:12.001Z</time></trkpt><trkpt lat="40.598210571185014" lon="9.106521859997544"><ele>515.0</ele><time>2026-05-01T06:17:13.001Z</time></trkpt><trkpt lat="40.59835007428428" lon="9.106515440997224"><ele>514.0</ele><time>2026-05-01T06:17:14.001Z</time></trkpt><trkpt lat="40.59850099697632" lon="9.106503625924521"><ele>513.0</ele><time>2026-05-01T06:17:15.001Z</time></trkpt><trkpt lat="40.59864672531135" lon="9.10649770549649"><ele>512.0</ele><time>2026-05-01T06:17:16.001Z</time></trkpt><trkpt lat="40.5987760999592" lon="9.106505721812825"><ele>510.75</ele><time>2026-05-01T06:17:17.001Z</time></trkpt><trkpt lat="40.59889902159134" lon="9.106532217537719"><ele>509.5</ele><time>2026-05-01T06:17:18.001Z</time></trkpt><trkpt lat="40.59902495889064" lon="9.106585788022723"><ele>508.25</ele><time>2026-05-01T06:17:19.001Z</time></trkpt><trkpt lat="40.59914944559616" lon="9.106660319299365"><ele>507.0</ele><time>2026-05-01T06:17:20.001Z</time></trkpt><trkpt lat="40.599282698163556" lon="9.106755451736886"><ele>507.66666666666663</ele><time>2026-05-01T06:17:21.001Z</time></trkpt><trkpt lat="40.59942385877316" lon="9.106867417265693"><ele>508.3333333333333</ele><time>2026-05-01T06:17:22.001Z</time></trkpt><trkpt lat="40.59957471696046" lon="9.10698333152118"><ele>509.0</ele><time>2026-05-01T06:17:23.001Z</time></trkpt><trkpt lat="40.59972942771188" lon="9.107097949959027"><ele>509.0</ele><time>2026-05-01T06:17:24.001Z</time></trkpt><trkpt lat="40.59988761451969" lon="9.10721800430603"><ele>509.0</ele><time>2026-05-01T06:17:25.001Z</time></trkpt><trkpt lat="40.60004476278483" lon="9.107340374337038"><ele>509.0</ele><time>2026-05-01T06:17:26.001Z</time></trkpt><trkpt lat="40.60020985629386" lon="9.107463710786858"><ele>511.0</ele><time>2026-05-01T06:17:27.001Z</time></trkpt><trkpt lat="40.60037637715205" lon="9.107593723152519"><ele>513.0</ele><time>2026-05-01T06:17:28.001Z</time></trkpt><trkpt lat="40.60053640228706" lon="9.107728026195815"><ele>515.0</ele><time>2026-05-01T06:17:29.001Z</time></trkpt><trkpt lat="40.600698097100405" lon="9.107861367104388"><ele>515.0</ele><time>2026-05-01T06:17:30.001Z</time></trkpt><trkpt lat="40.600844924099086" lon="9.107993332850421"><ele>515.0</ele><time>2026-05-01T06:17:31.001Z</time></trkpt><trkpt lat="40.600975510088006" lon="9.108107134762216"><ele>515.0</ele><time>2026-05-01T06:17:32.001Z</time></trkpt><trkpt lat="40.60110176323188" lon="9.108195138982383"><ele>513.3333333333333</ele><time>2026-05-01T06:17:33.001Z</time></trkpt><trkpt lat="40.601248190020804" lon="9.10827020935769"><ele>511.66666666666663</ele><time>2026-05-01T06:17:34.001Z</time></trkpt><trkpt lat="40.60141339573345" lon="9.108329838874774"><ele>510.0</ele><time>2026-05-01T06:17:35.001Z</time></trkpt><trkpt lat="40.60159057285554" lon="9.108388847809973"><ele>510.0</ele><time>2026-05-01T06:17:36.001Z</time></trkpt><trkpt lat="40.60177256664671" lon="9.108444386223402"><ele>510.0</ele><time>2026-05-01T06:17:37.001Z</time></trkpt><trkpt lat="40.601958517737884" lon="9.108514772305716"><ele>510.0</ele><time>2026-05-01T06:17:38.001Z</time></trkpt><trkpt lat="40.60214487077395" lon="9.108585536369155"><ele>511.66666666666663</ele><time>2026-05-01T06:17:39.001Z</time></trkpt><trkpt lat="40.60233229918231" lon="9.108662787646265"><ele>513.3333333333333</ele><time>2026-05-01T06:17:40.001Z</time></trkpt><trkpt lat="40.60252066481" lon="9.108733988489938"><ele>515.0</ele><time>2026-05-01T06:17:41.001Z</time></trkpt><trkpt lat="40.60270941270232" lon="9.108798203713823"><ele>516.0</ele><time>2026-05-01T06:17:42.001Z</time></trkpt><trkpt lat="40.60290288937369" lon="9.108851359764868"><ele>517.0</ele><time>2026-05-01T06:17:43.001Z</time></trkpt><trkpt lat="40.603094751069996" lon="9.108898230276631"><ele>518.0</ele><time>2026-05-01T06:17:44.001Z</time></trkpt><trkpt lat="40.603281926928815" lon="9.108941994700473"><ele>518.0</ele><time>2026-05-01T06:17:45.001Z</time></trkpt><trkpt lat="40.603455416006476" lon="9.108982716516506"><ele>518.0</ele><time>2026-05-01T06:17:46.001Z</time></trkpt><trkpt lat="40.60361378075424" lon="9.109023642383802"><ele>518.0</ele><time>2026-05-01T06:17:47.001Z</time></trkpt><trkpt lat="40.60375822327506" lon="9.109058426669076"><ele>511.75</ele><time>2026-05-01T06:17:48.001Z</time></trkpt><trkpt lat="40.60388348890243" lon="9.109092074067352"><ele>505.5</ele><time>2026-05-01T06:17:49.001Z</time></trkpt><trkpt lat="40.60399525461909" lon="9.109148763488596"><ele>499.25</ele><time>2026-05-01T06:17:50.001Z</time></trkpt><trkpt lat="40.60410716611958" lon="9.109232963595494"><ele>493.0</ele><time>2026-05-01T06:17:51.001Z</time></trkpt><trkpt lat="40.6042232129011" lon="9.109340682625847"><ele>493.0</ele><time>2026-05-01T06:17:52.001Z</time></trkpt><trkpt lat="40.604348657300505" lon="9.109465468585427"><ele>493.0</ele><time>2026-05-01T06:17:53.001Z</time></trkpt><trkpt lat="40.60447602262971" lon="9.109597897374906"><ele>493.0</ele><time>2026-05-01T06:17:54.001Z</time></trkpt><trkpt lat="40.60461353506717" lon="9.109728712454125"><ele>494.6666666666667</ele><time>2026-05-01T06:17:55.001Z</time></trkpt><trkpt lat="40.60475947701726" lon="9.109843932549765"><ele>496.33333333333337</ele><time>2026-05-01T06:17:56.001Z</time></trkpt><trkpt lat="40.60491253100306" lon="9.109964622459895"><ele>498.0</ele><time>2026-05-01T06:17:57.001Z</time></trkpt><trkpt lat="40.605051775693084" lon="9.110061080960874"><ele>492.66666666666663</ele><time>2026-05-01T06:17:58.001Z</time></trkpt><trkpt lat="40.60517925150159" lon="9.110166916493686"><ele>487.3333333333333</ele><time>2026-05-01T06:17:59.001Z</time></trkpt><trkpt lat="40.605319419474505" lon="9.110275810385112"><ele>482.0</ele><time>2026-05-01T06:18:00.001Z</time></trkpt><trkpt lat="40.60544549942712" lon="9.110398446784341"><ele>481.0</ele><time>2026-05-01T06:18:01.001Z</time></trkpt><trkpt lat="40.60557292679164" lon="9.110531924122503"><ele>480.0</ele><time>2026-05-01T06:18:02.001Z</time></trkpt><trkpt lat="40.605702600059615" lon="9.110675030585607"><ele>479.0</ele><time>2026-05-01T06:18:03.001Z</time></trkpt><trkpt lat="40.60583534616196" lon="9.110822344130819"><ele>477.0</ele><time>2026-05-01T06:18:04.001Z</time></trkpt><trkpt lat="40.60597129741475" lon="9.110978651377469"><ele>475.0</ele><time>2026-05-01T06:18:05.001Z</time></trkpt><trkpt lat="40.60609690709567" lon="9.111123849208422"><ele>473.0</ele><time>2026-05-01T06:18:06.001Z</time></trkpt><trkpt lat="40.60622098300888" lon="9.111263777732372"><ele>473.0</ele><time>2026-05-01T06:18:07.001Z</time></trkpt><trkpt lat="40.606326941019994" lon="9.111373688223502"><ele>473.0</ele><time>2026-05-01T06:18:08.001Z</time></trkpt><trkpt lat="40.606415147295145" lon="9.111472055604011"><ele>473.0</ele><time>2026-05-01T06:18:09.001Z</time></trkpt><trkpt lat="40.60650445638242" lon="9.11154624097276"><ele>473.0</ele><time>2026-05-01T06:18:10.001Z</time></trkpt><trkpt lat="40.60660346500516" lon="9.111592616022628"><ele>473.0</ele><time>2026-05-01T06:18:11.001Z</time></trkpt><trkpt lat="40.60670230480124" lon="9.11160303959825"><ele>472.99999999999994</ele><time>2026-05-01T06:18:12.001Z</time></trkpt><trkpt lat="40.606809755399006" lon="9.111599107610074"><ele>472.99999999999994</ele><time>2026-05-01T06:18:13.001Z</time></trkpt><trkpt lat="40.60692457737089" lon="9.111562468843617"><ele>473.0</ele><time>2026-05-01T06:18:14.001Z</time></trkpt><trkpt lat="40.607025367124635" lon="9.111488943560975"><ele>473.0</ele><time>2026-05-01T06:18:15.001Z</time></trkpt><trkpt lat="40.60709962232541" lon="9.111401586668958"><ele>468.0</ele><time>2026-05-01T06:18:16.001Z</time></trkpt><trkpt lat="40.607161185710616" lon="9.111295450104624"><ele>462.99999999999994</ele><time>2026-05-01T06:18:17.001Z</time></trkpt><trkpt lat="40.60721763494771" lon="9.111170921358289"><ele>457.99999999999994</ele><time>2026-05-01T06:18:18.001Z</time></trkpt><trkpt lat="40.60725648916862" lon="9.111034188397843"><ele>453.0</ele><time>2026-05-01T06:18:19.001Z</time></trkpt><trkpt lat="40.60727872038139" lon="9.110909540973955"><ele>448.0</ele><time>2026-05-01T06:18:20.001Z</time></trkpt><trkpt lat="40.607292060143564" lon="9.110777487091331"><ele>446.25</ele><time>2026-05-01T06:18:21.001Z</time></trkpt><trkpt lat="40.60728216581768" lon="9.110639998504867"><ele>444.5</ele><time>2026-05-01T06:18:22Z</time></trkpt><trkpt lat="40.607249674713024" lon="9.110498070016103"><ele>442.75</ele><time>2026-05-01T06:18:23Z</time></trkpt><trkpt lat="40.60719272895563" lon="9.110349589897346"><ele>441.0</ele><time>2026-05-01T06:18:24Z</time></trkpt><trkpt lat="40.607122963105105" lon="9.110185052701436"><ele>441.0</ele><time>2026-05-01T06:18:25Z</time></trkpt><trkpt lat="40.60704695431531" lon="9.110010438402943"><ele>441.0</ele><time>2026-05-01T06:18:26.001Z</time></trkpt><trkpt lat="40.60698079132591" lon="9.10982380002949"><ele>441.0</ele><time>2026-05-01T06:18:27.001Z</time></trkpt><trkpt lat="40.6069136965273" lon="9.109647941527296"><ele>444.4</ele><time>2026-05-01T06:18:28Z</time></trkpt><trkpt lat="40.606850831489744" lon="9.109479941013937"><ele>447.8</ele><time>2026-05-01T06:18:29Z</time></trkpt><trkpt lat="40.60680080942683" lon="9.109354817172852"><ele>451.19999999999993</ele><time>2026-05-01T06:18:30Z</time></trkpt><trkpt lat="40.60676130642005" lon="9.109234585917712"><ele>454.59999999999997</ele><time>2026-05-01T06:18:31Z</time></trkpt><trkpt lat="40.60673931341885" lon="9.109113947132142"><ele>458.0</ele><time>2026-05-01T06:18:32Z</time></trkpt><trkpt lat="40.60674979901939" lon="9.108993688138138"><ele>459.5</ele><time>2026-05-01T06:18:33Z</time></trkpt><trkpt lat="40.60679460611795" lon="9.108870021817419"><ele>461.0</ele><time>2026-05-01T06:18:34Z</time></trkpt><trkpt lat="40.606843170249014" lon="9.108753522055572"><ele>462.5</ele><time>2026-05-01T06:18:35Z</time></trkpt><trkpt lat="40.60693021737255" lon="9.108636449508424"><ele>464.0</ele><time>2026-05-01T06:18:36Z</time></trkpt><trkpt lat="40.607028704264174" lon="9.108516041902025"><ele>461.75</ele><time>2026-05-01T06:18:37Z</time></trkpt><trkpt lat="40.607126637860375" lon="9.108386001113551"><ele>459.5</ele><time>2026-05-01T06:18:38Z</time></trkpt><trkpt lat="40.60722229733737" lon="9.108246110808333"><ele>457.25</ele><time>2026-05-01T06:18:39Z</time></trkpt><trkpt lat="40.60731779727653" lon="9.108098975893833"><ele>455.0</ele><time>2026-05-01T06:18:40Z</time></trkpt><trkpt lat="40.60741252574584" lon="9.107951456117238"><ele>455.0</ele><time>2026-05-01T06:18:41Z</time></trkpt><trkpt lat="40.60750633833144" lon="9.107827267939692"><ele>455.0</ele><time>2026-05-01T06:18:42Z</time></trkpt><trkpt lat="40.607599334294186" lon="9.107694483870093"><ele>455.0</ele><time>2026-05-01T06:18:43Z</time></trkpt><trkpt lat="40.60768097552268" lon="9.107585490889278"><ele>455.0</ele><time>2026-05-01T06:18:44Z</time></trkpt><trkpt lat="40.607767183657316" lon="9.107502082780362"><ele>451.5</ele><time>2026-05-01T06:18:45Z</time></trkpt><trkpt lat="40.60786472708891" lon="9.10745431166984"><ele>448.0</ele><time>2026-05-01T06:18:46Z</time></trkpt><trkpt lat="40.60797938909108" lon="9.107422329738126"><ele>444.5</ele><time>2026-05-01T06:18:47Z</time></trkpt><trkpt lat="40.60811234373501" lon="9.107396962719948"><ele>441.0</ele><time>2026-05-01T06:18:48Z</time></trkpt><trkpt lat="40.6082424887188" lon="9.107359368416951"><ele>441.0</ele><time>2026-05-01T06:18:49Z</time></trkpt><trkpt lat="40.608350623577444" lon="9.107319711235782"><ele>441.0</ele><time>2026-05-01T06:18:50Z</time></trkpt><trkpt lat="40.60843190933372" lon="9.107268939499788"><ele>441.0</ele><time>2026-05-01T06:18:51Z</time></trkpt><trkpt lat="40.60849735954663" lon="9.107195866600986"><ele>441.0</ele><time>2026-05-01T06:18:52Z</time></trkpt><trkpt lat="40.608554561632566" lon="9.107091190226908"><ele>441.0</ele><time>2026-05-01T06:18:53Z</time></trkpt><trkpt lat="40.60858987142079" lon="9.106972515444355"><ele>441.0</ele><time>2026-05-01T06:18:54Z</time></trkpt><trkpt lat="40.60861240083517" lon="9.10683652827812"><ele>441.0</ele><time>2026-05-01T06:18:55Z</time></trkpt><trkpt lat="40.60862486104162" lon="9.106683343623589"><ele>441.0</ele><time>2026-05-01T06:18:56Z</time></trkpt><trkpt lat="40.608630243024955" lon="9.106512522906073"><ele>441.0</ele><time>2026-05-01T06:18:57Z</time></trkpt><trkpt lat="40.60863046294359" lon="9.106322474189238"><ele>439.66666666666663</ele><time>2026-05-01T06:18:58Z</time></trkpt><trkpt lat="40.60862250747083" lon="9.10612390841039"><ele>438.3333333333333</ele><time>2026-05-01T06:18:59Z</time></trkpt><trkpt lat="40.60861619997541" lon="9.105919724232686"><ele>437.0</ele><time>2026-05-01T06:19:00Z</time></trkpt><trkpt lat="40.608612246734914" lon="9.105706142743868"><ele>435.3333333333333</ele><time>2026-05-01T06:19:01Z</time></trkpt><trkpt lat="40.60860845959024" lon="9.105482247840158"><ele>433.66666666666663</ele><time>2026-05-01T06:19:02Z</time></trkpt><trkpt lat="40.60861208514253" lon="9.105248601755378"><ele>432.0</ele><time>2026-05-01T06:19:03Z</time></trkpt><trkpt lat="40.60862495354405" lon="9.10501738778972"><ele>431.0</ele><time>2026-05-01T06:19:04Z</time></trkpt><trkpt lat="40.60863932586628" lon="9.104760824180989"><ele>430.0</ele><time>2026-05-01T06:19:05Z</time></trkpt><trkpt lat="40.60865348977486" lon="9.104546698784072"><ele>429.0</ele><time>2026-05-01T06:19:06Z</time></trkpt><trkpt lat="40.60866218349666" lon="9.104320978386962"><ele>426.66666666666663</ele><time>2026-05-01T06:19:07Z</time></trkpt><trkpt lat="40.60866077459256" lon="9.104089586649637"><ele>424.3333333333333</ele><time>2026-05-01T06:19:08Z</time></trkpt><trkpt lat="40.608647731246435" lon="9.10385812376585"><ele>422.0</ele><time>2026-05-01T06:19:09Z</time></trkpt><trkpt lat="40.608627622496186" lon="9.103637584827911"><ele>422.0</ele><time>2026-05-01T06:19:10.001Z</time></trkpt><trkpt lat="40.60860202158378" lon="9.103415779595226"><ele>422.0</ele><time>2026-05-01T06:19:11.001Z</time></trkpt><trkpt lat="40.60857584776229" lon="9.103193189703378"><ele>422.0</ele><time>2026-05-01T06:19:12.001Z</time></trkpt><trkpt lat="40.60855231876803" lon="9.102960628895602"><ele>420.0</ele><time>2026-05-01T06:19:13.001Z</time></trkpt><trkpt lat="40.608537035816695" lon="9.102718591121"><ele>418.0</ele><time>2026-05-01T06:19:14.001Z</time></trkpt><trkpt lat="40.608530156777114" lon="9.102474355033467"><ele>416.0</ele><time>2026-05-01T06:19:15.001Z</time></trkpt><trkpt lat="40.60852835544889" lon="9.102232786488887"><ele>415.3333333333333</ele><time>2026-05-01T06:19:16.001Z</time></trkpt><trkpt lat="40.60852536767665" lon="9.10198933384972"><ele>414.66666666666663</ele><time>2026-05-01T06:19:17.001Z</time></trkpt><trkpt lat="40.60851725123668" lon="9.10174400773409"><ele>414.0</ele><time>2026-05-01T06:19:18.001Z</time></trkpt><trkpt lat="40.608510164669326" lon="9.101507655869575"><ele>411.33333333333337</ele><time>2026-05-01T06:19:19.001Z</time></trkpt><trkpt lat="40.608504016444066" lon="9.101287016922457"><ele>408.6666666666667</ele><time>2026-05-01T06:19:20.001Z</time></trkpt><trkpt lat="40.60849596824558" lon="9.101067904072565"><ele>406.0</ele><time>2026-05-01T06:19:21.001Z</time></trkpt><trkpt lat="40.608473795775694" lon="9.100853730488348"><ele>403.0</ele><time>2026-05-01T06:19:22.001Z</time></trkpt><trkpt lat="40.608427837676054" lon="9.100639254499201"><ele>400.0</ele><time>2026-05-01T06:19:23.001Z</time></trkpt><trkpt lat="40.60836813534764" lon="9.100422449744146"><ele>397.0</ele><time>2026-05-01T06:19:24.001Z</time></trkpt><trkpt lat="40.60829574368312" lon="9.100198621661974"><ele>397.0</ele><time>2026-05-01T06:19:25.001Z</time></trkpt><trkpt lat="40.60822177330474" lon="9.099971341837849"><ele>397.0</ele><time>2026-05-01T06:19:26.001Z</time></trkpt><trkpt lat="40.60815129801082" lon="9.099745194313282"><ele>397.0</ele><time>2026-05-01T06:19:27.001Z</time></trkpt><trkpt lat="40.60808763169693" lon="9.099541726752612"><ele>396.75</ele><time>2026-05-01T06:19:28.001Z</time></trkpt><trkpt lat="40.608026895639505" lon="9.099350773104518"><ele>396.5</ele><time>2026-05-01T06:19:29.001Z</time></trkpt><trkpt lat="40.607964825558476" lon="9.099190461216255"><ele>396.25</ele><time>2026-05-01T06:19:30.001Z</time></trkpt><trkpt lat="40.60788930073666" lon="9.099049080658258"><ele>396.0</ele><time>2026-05-01T06:19:31.001Z</time></trkpt><trkpt lat="40.60779006682626" lon="9.098915656735766"><ele>395.5</ele><time>2026-05-01T06:19:32.001Z</time></trkpt><trkpt lat="40.60767340145661" lon="9.098787887653287"><ele>395.0</ele><time>2026-05-01T06:19:33.001Z</time></trkpt><trkpt lat="40.60754927868568" lon="9.098672903784264"><ele>394.5</ele><time>2026-05-01T06:19:34.001Z</time></trkpt><trkpt lat="40.607433675959115" lon="9.098564451276667"><ele>394.0</ele><time>2026-05-01T06:19:35.001Z</time></trkpt><trkpt lat="40.607346415338206" lon="9.098456058391793"><ele>394.0</ele><time>2026-05-01T06:19:36.001Z</time></trkpt><trkpt lat="40.607285825639444" lon="9.098347653642625"><ele>394.0</ele><time>2026-05-01T06:19:37.001Z</time></trkpt><trkpt lat="40.60725604454402" lon="9.098235879609105"><ele>394.0</ele><time>2026-05-01T06:19:38.001Z</time></trkpt><trkpt lat="40.60724579039212" lon="9.098111518228851"><ele>394.0</ele><time>2026-05-01T06:19:39.001Z</time></trkpt><trkpt lat="40.607258184430286" lon="9.097980020009011"><ele>394.0</ele><time>2026-05-01T06:19:40.001Z</time></trkpt><trkpt lat="40.607295127157094" lon="9.097828848979926"><ele>394.0</ele><time>2026-05-01T06:19:41.001Z</time></trkpt><trkpt lat="40.60733835041812" lon="9.09766637209115"><ele>394.0</ele><time>2026-05-01T06:19:42.001Z</time></trkpt><trkpt lat="40.60738001318518" lon="9.097492581834643"><ele>394.0</ele><time>2026-05-01T06:19:43.001Z</time></trkpt><trkpt lat="40.6074236965472" lon="9.097312611947745"><ele>394.0</ele><time>2026-05-01T06:19:44.001Z</time></trkpt><trkpt lat="40.60746311589684" lon="9.097120910516518"><ele>393.5</ele><time>2026-05-01T06:19:45.001Z</time></trkpt><trkpt lat="40.6074886708181" lon="9.096941222057032"><ele>393.0</ele><time>2026-05-01T06:19:46.001Z</time></trkpt><trkpt lat="40.607491945907235" lon="9.09677333307681"><ele>392.5</ele><time>2026-05-01T06:19:47.001Z</time></trkpt><trkpt lat="40.60746824393338" lon="9.09660646565266"><ele>392.0</ele><time>2026-05-01T06:19:48.001Z</time></trkpt><trkpt lat="40.607429900468986" lon="9.096419517157269"><ele>391.3333333333333</ele><time>2026-05-01T06:19:49.001Z</time></trkpt><trkpt lat="40.607379671087884" lon="9.09622114011194"><ele>390.66666666666663</ele><time>2026-05-01T06:19:50.001Z</time></trkpt><trkpt lat="40.607327535380264" lon="9.096011832846402"><ele>390.0</ele><time>2026-05-01T06:19:51.001Z</time></trkpt><trkpt lat="40.60727416837547" lon="9.09579134922576"><ele>388.0</ele><time>2026-05-01T06:19:52.001Z</time></trkpt><trkpt lat="40.607223532769524" lon="9.095567677667654"><ele>386.0</ele><time>2026-05-01T06:19:53.001Z</time></trkpt><trkpt lat="40.60717298524389" lon="9.095340316722735"><ele>384.0</ele><time>2026-05-01T06:19:54.001Z</time></trkpt><trkpt lat="40.60712371389245" lon="9.095120654835224"><ele>385.0</ele><time>2026-05-01T06:19:55.001Z</time></trkpt><trkpt lat="40.60708143586149" lon="9.094909480722858"><ele>386.0</ele><time>2026-05-01T06:19:56.001Z</time></trkpt><trkpt lat="40.607055422710076" lon="9.09473799235235"><ele>387.0</ele><time>2026-05-01T06:19:57.001Z</time></trkpt><trkpt lat="40.60704256694714" lon="9.094587224045759"><ele>388.0</ele><time>2026-05-01T06:19:58.001Z</time></trkpt><trkpt lat="40.60705775006316" lon="9.09444814761677"><ele>388.0</ele><time>2026-05-01T06:19:59.001Z</time></trkpt><trkpt lat="40.607104139524516" lon="9.09430874424672"><ele>388.0</ele><time>2026-05-01T06:20:00.001Z</time></trkpt><trkpt lat="40.60716764367136" lon="9.094190408037946"><ele>388.0</ele><time>2026-05-01T06:20:01.001Z</time></trkpt><trkpt lat="40.60724661359166" lon="9.094092405657333"><ele>388.0</ele><time>2026-05-01T06:20:02.001Z</time></trkpt><trkpt lat="40.607338198069364" lon="9.094022287483083"><ele>388.0</ele><time>2026-05-01T06:20:03.001Z</time></trkpt><trkpt lat="40.607441182217066" lon="9.09398038305192"><ele>389.5</ele><time>2026-05-01T06:20:04.001Z</time></trkpt><trkpt lat="40.60755154144003" lon="9.093954036639822"><ele>391.0</ele><time>2026-05-01T06:20:05.001Z</time></trkpt><trkpt lat="40.60767101357417" lon="9.093955770319678"><ele>392.5</ele><time>2026-05-01T06:20:06.001Z</time></trkpt><trkpt lat="40.60778892195096" lon="9.093992570186286"><ele>394.0</ele><time>2026-05-01T06:20:07.001Z</time></trkpt><trkpt lat="40.60790703697902" lon="9.094056670496869"><ele>394.75</ele><time>2026-05-01T06:20:08.001Z</time></trkpt><trkpt lat="40.60802738330386" lon="9.094143234196691"><ele>395.5</ele><time>2026-05-01T06:20:09.001Z</time></trkpt><trkpt lat="40.60814606703993" lon="9.094238180990112"><ele>396.25</ele><time>2026-05-01T06:20:10.001Z</time></trkpt><trkpt lat="40.60827495753246" lon="9.094335192029057"><ele>397.0</ele><time>2026-05-01T06:20:11.001Z</time></trkpt><trkpt lat="40.60840596802968" lon="9.094432507825548"><ele>397.0</ele><time>2026-05-01T06:20:12.001Z</time></trkpt><trkpt lat="40.60853918207069" lon="9.094528894317934"><ele>397.0</ele><time>2026-05-01T06:20:13.001Z</time></trkpt><trkpt lat="40.60866931431302" lon="9.094626460887232"><ele>397.0</ele><time>2026-05-01T06:20:14.001Z</time></trkpt><trkpt lat="40.60879683623944" lon="9.094728892492034"><ele>397.6666666666667</ele><time>2026-05-01T06:20:15.001Z</time></trkpt><trkpt lat="40.608924191965606" lon="9.094825811719703"><ele>398.33333333333337</ele><time>2026-05-01T06:20:16.001Z</time></trkpt><trkpt lat="40.60906781560962" lon="9.094928427990418"><ele>399.0</ele><time>2026-05-01T06:20:17.001Z</time></trkpt><trkpt lat="40.609205344627014" lon="9.095025970078655"><ele>399.0</ele><time>2026-05-01T06:20:18.001Z</time></trkpt><trkpt lat="40.609343674816955" lon="9.09512146141674"><ele>399.0</ele><time>2026-05-01T06:20:19.001Z</time></trkpt><trkpt lat="40.609476990061985" lon="9.095214575287628"><ele>399.0</ele><time>2026-05-01T06:20:20.001Z</time></trkpt><trkpt lat="40.60960581940137" lon="9.095307870517772"><ele>403.75</ele><time>2026-05-01T06:20:21.001Z</time></trkpt><trkpt lat="40.60973277994101" lon="9.095402135377274"><ele>408.5</ele><time>2026-05-01T06:20:22.001Z</time></trkpt><trkpt lat="40.60985245475285" lon="9.095496474590846"><ele>413.25</ele><time>2026-05-01T06:20:23.001Z</time></trkpt><trkpt lat="40.60997886328001" lon="9.095590360896074"><ele>418.0</ele><time>2026-05-01T06:20:24.001Z</time></trkpt><trkpt lat="40.61010354054799" lon="9.095681996216722"><ele>419.75</ele><time>2026-05-01T06:20:25.001Z</time></trkpt><trkpt lat="40.61022313057518" lon="9.095772077230537"><ele>421.5</ele><time>2026-05-01T06:20:26.001Z</time></trkpt><trkpt lat="40.610348240986625" lon="9.095862964151227"><ele>423.25</ele><time>2026-05-01T06:20:27.001Z</time></trkpt><trkpt lat="40.610474949525454" lon="9.095950826212565"><ele>425.0</ele><time>2026-05-01T06:20:28Z</time></trkpt><trkpt lat="40.61059342458622" lon="9.096040602017995"><ele>425.0</ele><time>2026-05-01T06:20:29Z</time></trkpt><trkpt lat="40.61069934081152" lon="9.096130896114175"><ele>425.0</ele><time>2026-05-01T06:20:30Z</time></trkpt><trkpt lat="40.61080158548056" lon="9.09623494939814"><ele>425.0</ele><time>2026-05-01T06:20:31Z</time></trkpt><trkpt lat="40.610891612758955" lon="9.096358541377482"><ele>425.0</ele><time>2026-05-01T06:20:32Z</time></trkpt><trkpt lat="40.610965510034596" lon="9.096496799976759"><ele>427.75</ele><time>2026-05-01T06:20:33Z</time></trkpt><trkpt lat="40.61102391620485" lon="9.096645496278605"><ele>430.5</ele><time>2026-05-01T06:20:34Z</time></trkpt><trkpt lat="40.61107050700215" lon="9.096807245730622"><ele>433.25</ele><time>2026-05-01T06:20:35Z</time></trkpt><trkpt lat="40.61112171383782" lon="9.096971587473442"><ele>436.0</ele><time>2026-05-01T06:20:36Z</time></trkpt><trkpt lat="40.61118613144468" lon="9.097116831087654"><ele>436.0</ele><time>2026-05-01T06:20:37Z</time></trkpt><trkpt lat="40.611262778790994" lon="9.09725140148657"><ele>436.0</ele><time>2026-05-01T06:20:38Z</time></trkpt><trkpt lat="40.611356584049766" lon="9.097370149940158"><ele>436.0</ele><time>2026-05-01T06:20:39Z</time></trkpt><trkpt lat="40.61146145468241" lon="9.097472628272481"><ele>436.0</ele><time>2026-05-01T06:20:40Z</time></trkpt><trkpt lat="40.61157546717931" lon="9.097549321140251"><ele>434.5</ele><time>2026-05-01T06:20:41Z</time></trkpt><trkpt lat="40.611687818398345" lon="9.097598550419004"><ele>433.0</ele><time>2026-05-01T06:20:42Z</time></trkpt><trkpt lat="40.61180023392119" lon="9.09762392582087"><ele>431.5</ele><time>2026-05-01T06:20:43Z</time></trkpt><trkpt lat="40.61191307383139" lon="9.097618849029624"><ele>430.0</ele><time>2026-05-01T06:20:44Z</time></trkpt><trkpt lat="40.61202196562803" lon="9.097585159403971"><ele>430.0</ele><time>2026-05-01T06:20:45Z</time></trkpt><trkpt lat="40.61212570267761" lon="9.097530453828302"><ele>430.0</ele><time>2026-05-01T06:20:46Z</time></trkpt><trkpt lat="40.612236617653295" lon="9.097478360844816"><ele>430.0</ele><time>2026-05-01T06:20:47Z</time></trkpt><trkpt lat="40.61233761174813" lon="9.097463348408812"><ele>430.0</ele><time>2026-05-01T06:20:48Z</time></trkpt><trkpt lat="40.61242728511633" lon="9.09748124206028"><ele>430.0</ele><time>2026-05-01T06:20:49Z</time></trkpt><trkpt lat="40.61250399560223" lon="9.097549008897497"><ele>430.0</ele><time>2026-05-01T06:20:50Z</time></trkpt><trkpt lat="40.612562620017314" lon="9.097636066993111"><ele>430.0</ele><time>2026-05-01T06:20:51Z</time></trkpt><trkpt lat="40.612605813320364" lon="9.097756137580173"><ele>430.0</ele><time>2026-05-01T06:20:52Z</time></trkpt><trkpt lat="40.612627756030335" lon="9.097887455366099"><ele>430.0</ele><time>2026-05-01T06:20:53Z</time></trkpt><trkpt lat="40.61263353429231" lon="9.09803495914736"><ele>430.0</ele><time>2026-05-01T06:20:54Z</time></trkpt><trkpt lat="40.612589012875844" lon="9.098165045187688"><ele>428.5</ele><time>2026-05-01T06:20:55Z</time></trkpt><trkpt lat="40.6125320670233" lon="9.09829645229577"><ele>427.0</ele><time>2026-05-01T06:20:56Z</time></trkpt><trkpt lat="40.612482388726654" lon="9.098433932530611"><ele>425.5</ele><time>2026-05-01T06:20:57Z</time></trkpt><trkpt lat="40.61243786182479" lon="9.098586153566272"><ele>424.0</ele><time>2026-05-01T06:20:58Z</time></trkpt><trkpt lat="40.612405608799264" lon="9.098752281277708"><ele>424.0</ele><time>2026-05-01T06:20:59Z</time></trkpt><trkpt lat="40.612390880238365" lon="9.098922318107698"><ele>424.0</ele><time>2026-05-01T06:21:00Z</time></trkpt><trkpt lat="40.61238102218956" lon="9.099096834007902"><ele>424.0</ele><time>2026-05-01T06:21:01Z</time></trkpt><trkpt lat="40.61237204940866" lon="9.099271476402704"><ele>424.0</ele><time>2026-05-01T06:21:02Z</time></trkpt><trkpt lat="40.61236921508993" lon="9.099434091873926"><ele>425.0</ele><time>2026-05-01T06:21:03Z</time></trkpt><trkpt lat="40.61236886984438" lon="9.099586856099362"><ele>426.0</ele><time>2026-05-01T06:21:04Z</time></trkpt><trkpt lat="40.612383289751826" lon="9.099736477047468"><ele>427.0</ele><time>2026-05-01T06:21:05Z</time></trkpt><trkpt lat="40.612420610138344" lon="9.099879063875083"><ele>428.0</ele><time>2026-05-01T06:21:06Z</time></trkpt><trkpt lat="40.612471960015895" lon="9.100007305865496"><ele>428.0</ele><time>2026-05-01T06:21:07Z</time></trkpt><trkpt lat="40.61254301003974" lon="9.100135406450454"><ele>428.0</ele><time>2026-05-01T06:21:08Z</time></trkpt><trkpt lat="40.61262772710988" lon="9.10026836174528"><ele>428.0</ele><time>2026-05-01T06:21:09Z</time></trkpt><trkpt lat="40.61271269437441" lon="9.100385928290372"><ele>428.0</ele><time>2026-05-01T06:21:10Z</time></trkpt><trkpt lat="40.612796994734495" lon="9.100478080756737"><ele>432.25</ele><time>2026-05-01T06:21:11Z</time></trkpt><trkpt lat="40.612889582960506" lon="9.100543397221255"><ele>436.5</ele><time>2026-05-01T06:21:12Z</time></trkpt><trkpt lat="40.612991014552115" lon="9.100574296318419"><ele>440.75</ele><time>2026-05-01T06:21:13Z</time></trkpt><trkpt lat="40.61310972687662" lon="9.10058997514122"><ele>445.0</ele><time>2026-05-01T06:21:14Z</time></trkpt><trkpt lat="40.613238335633866" lon="9.100606723404253"><ele>445.0</ele><time>2026-05-01T06:21:15Z</time></trkpt><trkpt lat="40.613374471101395" lon="9.100617817184089"><ele>445.0</ele><time>2026-05-01T06:21:16Z</time></trkpt><trkpt lat="40.613520027347604" lon="9.10063804414941"><ele>445.0</ele><time>2026-05-01T06:21:17Z</time></trkpt><trkpt lat="40.613657357913496" lon="9.100653132783712"><ele>445.0</ele><time>2026-05-01T06:21:18Z</time></trkpt><trkpt lat="40.61376860180577" lon="9.100687156110617"><ele>446.25</ele><time>2026-05-01T06:21:19Z</time></trkpt><trkpt lat="40.61391143424827" lon="9.100704759220303"><ele>447.5</ele><time>2026-05-01T06:21:20Z</time></trkpt><trkpt lat="40.614050426910765" lon="9.100723289431288"><ele>448.75</ele><time>2026-05-01T06:21:21Z</time></trkpt><trkpt lat="40.6141941042129" lon="9.100740969729806"><ele>450.0</ele><time>2026-05-01T06:21:22Z</time></trkpt><trkpt lat="40.614319161443866" lon="9.10075682759877"><ele>450.6</ele><time>2026-05-01T06:21:23Z</time></trkpt><trkpt lat="40.614427807029045" lon="9.100782236361798"><ele>451.2</ele><time>2026-05-01T06:21:24Z</time></trkpt><trkpt lat="40.6145261110873" lon="9.100833309968756"><ele>451.79999999999995</ele><time>2026-05-01T06:21:25Z</time></trkpt><trkpt lat="40.61461637836182" lon="9.100916984639607"><ele>452.4</ele><time>2026-05-01T06:21:26Z</time></trkpt><trkpt lat="40.614691613136685" lon="9.101026296059898"><ele>453.0</ele><time>2026-05-01T06:21:27Z</time></trkpt><trkpt lat="40.61475690145373" lon="9.10115198299828"><ele>453.0</ele><time>2026-05-01T06:21:28Z</time></trkpt><trkpt lat="40.614815765187565" lon="9.101306289058558"><ele>453.0</ele><time>2026-05-01T06:21:29Z</time></trkpt><trkpt lat="40.61487020573659" lon="9.101474268856425"><ele>453.0</ele><time>2026-05-01T06:21:30Z</time></trkpt><trkpt lat="40.61493003280535" lon="9.101650321747153"><ele>453.0</ele><time>2026-05-01T06:21:31Z</time></trkpt><trkpt lat="40.61499090144536" lon="9.10183010130992"><ele>449.66666666666663</ele><time>2026-05-01T06:21:32Z</time></trkpt><trkpt lat="40.615056632625965" lon="9.10201164184664"><ele>446.3333333333333</ele><time>2026-05-01T06:21:33Z</time></trkpt><trkpt lat="40.61512442484425" lon="9.102196543664366"><ele>443.0</ele><time>2026-05-01T06:21:34Z</time></trkpt><trkpt lat="40.61519039107001" lon="9.102372145616059"><ele>441.0</ele><time>2026-05-01T06:21:35Z</time></trkpt><trkpt lat="40.61525611958191" lon="9.102535636372187"><ele>439.0</ele><time>2026-05-01T06:21:36Z</time></trkpt><trkpt lat="40.615325171258654" lon="9.10266949761459"><ele>437.0</ele><time>2026-05-01T06:21:37Z</time></trkpt><trkpt lat="40.61540367668407" lon="9.102775642240038"><ele>435.0</ele><time>2026-05-01T06:21:38Z</time></trkpt><trkpt lat="40.61549733327554" lon="9.102855360145123"><ele>440.0</ele><time>2026-05-01T06:21:39Z</time></trkpt><trkpt lat="40.61560119903015" lon="9.102911170197917"><ele>445.0</ele><time>2026-05-01T06:21:40Z</time></trkpt><trkpt lat="40.615707753107635" lon="9.102936190382994"><ele>450.0</ele><time>2026-05-01T06:21:41Z</time></trkpt><trkpt lat="40.61583031072857" lon="9.102883001425928"><ele>455.0</ele><time>2026-05-01T06:21:42Z</time></trkpt><trkpt lat="40.615947097062524" lon="9.102857509805682"><ele>454.99999999999994</ele><time>2026-05-01T06:21:43Z</time></trkpt><trkpt lat="40.61604961821313" lon="9.102846866198028"><ele>455.0</ele><time>2026-05-01T06:21:44Z</time></trkpt><trkpt lat="40.61612713192803" lon="9.102860993989013"><ele>455.0</ele><time>2026-05-01T06:21:45Z</time></trkpt><trkpt lat="40.616201137006556" lon="9.102912860189958"><ele>455.0</ele><time>2026-05-01T06:21:46Z</time></trkpt><trkpt lat="40.6162520349137" lon="9.102994099570653"><ele>454.99999999999994</ele><time>2026-05-01T06:21:47Z</time></trkpt><trkpt lat="40.61628587845347" lon="9.103107851040923"><ele>455.0</ele><time>2026-05-01T06:21:48Z</time></trkpt><trkpt lat="40.61629698674231" lon="9.10323341632833"><ele>457.2</ele><time>2026-05-01T06:21:49Z</time></trkpt><trkpt lat="40.61629227640245" lon="9.1033664062299"><ele>459.4</ele><time>2026-05-01T06:21:50Z</time></trkpt><trkpt lat="40.616282591304206" lon="9.103510075040019"><ele>461.6</ele><time>2026-05-01T06:21:51Z</time></trkpt><trkpt lat="40.616286687704935" lon="9.103649078793449"><ele>463.8</ele><time>2026-05-01T06:21:52Z</time></trkpt><trkpt lat="40.616307439334015" lon="9.103791382092888"><ele>466.0</ele><time>2026-05-01T06:21:53Z</time></trkpt><trkpt lat="40.61634760884486" lon="9.10393205711754"><ele>466.0</ele><time>2026-05-01T06:21:54Z</time></trkpt><trkpt lat="40.61640806821475" lon="9.104076200071518"><ele>466.0</ele><time>2026-05-01T06:21:55Z</time></trkpt><trkpt lat="40.6164834083575" lon="9.10421968661647"><ele>466.0</ele><time>2026-05-01T06:21:56Z</time></trkpt><trkpt lat="40.61657292666788" lon="9.104376681068088"><ele>466.0</ele><time>2026-05-01T06:21:57Z</time></trkpt><trkpt lat="40.616658286248814" lon="9.104522108847027"><ele>464.6666666666667</ele><time>2026-05-01T06:21:58Z</time></trkpt><trkpt lat="40.61674841247721" lon="9.10468033396503"><ele>463.33333333333337</ele><time>2026-05-01T06:21:59Z</time></trkpt><trkpt lat="40.616840187087924" lon="9.10484666141226"><ele>462.0</ele><time>2026-05-01T06:22:00Z</time></trkpt><trkpt lat="40.616997241941874" lon="9.105157789904132"><ele>466.5</ele><time>2026-05-01T06:22:02Z</time></trkpt><trkpt lat="40.61705117692624" lon="9.105315210519134"><ele>471.0</ele><time>2026-05-01T06:22:03Z</time></trkpt><trkpt lat="40.617079859117496" lon="9.105479912188393"><ele>475.5</ele><time>2026-05-01T06:22:04Z</time></trkpt><trkpt lat="40.617083982550305" lon="9.105637034775727"><ele>480.0</ele><time>2026-05-01T06:22:05Z</time></trkpt><trkpt lat="40.61708943984922" lon="9.105805758466262"><ele>480.0</ele><time>2026-05-01T06:22:06Z</time></trkpt><trkpt lat="40.617069980760384" lon="9.105980638025459"><ele>480.0</ele><time>2026-05-01T06:22:07Z</time></trkpt><trkpt lat="40.61705605306936" lon="9.10616222843108"><ele>480.0</ele><time>2026-05-01T06:22:08Z</time></trkpt><trkpt lat="40.61704252635602" lon="9.106353543940468"><ele>480.0</ele><time>2026-05-01T06:22:09Z</time></trkpt><trkpt lat="40.61703292947633" lon="9.106537236383621"><ele>479.75</ele><time>2026-05-01T06:22:10Z</time></trkpt><trkpt lat="40.61702367776645" lon="9.106717369290163"><ele>479.5</ele><time>2026-05-01T06:22:11Z</time></trkpt><trkpt lat="40.617018485850075" lon="9.106896618792833"><ele>479.25</ele><time>2026-05-01T06:22:12Z</time></trkpt><trkpt lat="40.61702960882473" lon="9.10707380513994"><ele>479.0</ele><time>2026-05-01T06:22:13Z</time></trkpt><trkpt lat="40.61705292784998" lon="9.107242349807457"><ele>479.0</ele><time>2026-05-01T06:22:14Z</time></trkpt><trkpt lat="40.61709761696533" lon="9.107410300079875"><ele>479.0</ele><time>2026-05-01T06:22:15Z</time></trkpt><trkpt lat="40.61715507142461" lon="9.107570012357522"><ele>479.0</ele><time>2026-05-01T06:22:16Z</time></trkpt><trkpt lat="40.617225307065354" lon="9.107733539219286"><ele>479.0</ele><time>2026-05-01T06:22:17Z</time></trkpt><trkpt lat="40.61731166740744" lon="9.107898278521075"><ele>477.0</ele><time>2026-05-01T06:22:18Z</time></trkpt><trkpt lat="40.61749623421853" lon="9.108222313507337"><ele>475.0</ele><time>2026-05-01T06:22:20Z</time></trkpt><trkpt lat="40.61758670754135" lon="9.108383738069309"><ele>473.5</ele><time>2026-05-01T06:22:21Z</time></trkpt><trkpt lat="40.61767058059044" lon="9.108548358591374"><ele>472.0</ele><time>2026-05-01T06:22:22Z</time></trkpt><trkpt lat="40.61775845208369" lon="9.108704472817864"><ele>470.5</ele><time>2026-05-01T06:22:23Z</time></trkpt><trkpt lat="40.61783842363988" lon="9.108855268637079"><ele>469.0</ele><time>2026-05-01T06:22:24.001Z</time></trkpt><trkpt lat="40.61792074918437" lon="9.109010775457023"><ele>471.75</ele><time>2026-05-01T06:22:25.001Z</time></trkpt><trkpt lat="40.61799998700346" lon="9.109156461329842"><ele>474.5</ele><time>2026-05-01T06:22:26.001Z</time></trkpt><trkpt lat="40.618077087637744" lon="9.109299546233702"><ele>477.25</ele><time>2026-05-01T06:22:27.001Z</time></trkpt><trkpt lat="40.61815348911937" lon="9.109452232066472"><ele>480.0</ele><time>2026-05-01T06:22:28.001Z</time></trkpt><trkpt lat="40.61822441067512" lon="9.109588974481058"><ele>480.0</ele><time>2026-05-01T06:22:29.001Z</time></trkpt><trkpt lat="40.61830320589911" lon="9.1097268905371"><ele>480.0</ele><time>2026-05-01T06:22:30.001Z</time></trkpt><trkpt lat="40.618384405372744" lon="9.109871040518883"><ele>480.0</ele><time>2026-05-01T06:22:31.001Z</time></trkpt><trkpt lat="40.61846965436513" lon="9.110010073630589"><ele>480.0</ele><time>2026-05-01T06:22:32.001Z</time></trkpt><trkpt lat="40.61855761502164" lon="9.11014133114863"><ele>482.0</ele><time>2026-05-01T06:22:33.001Z</time></trkpt><trkpt lat="40.6186511121513" lon="9.110252208910673"><ele>484.0</ele><time>2026-05-01T06:22:34Z</time></trkpt><trkpt lat="40.61875610076764" lon="9.11034020118135"><ele>486.0</ele><time>2026-05-01T06:22:35Z</time></trkpt><trkpt lat="40.61886828970125" lon="9.110402945154458"><ele>488.0</ele><time>2026-05-01T06:22:36Z</time></trkpt><trkpt lat="40.618993939614775" lon="9.110459116722556"><ele>488.0</ele><time>2026-05-01T06:22:37Z</time></trkpt><trkpt lat="40.61912390630517" lon="9.11051818544573"><ele>488.0</ele><time>2026-05-01T06:22:38Z</time></trkpt><trkpt lat="40.61925027688105" lon="9.110588671223748"><ele>488.0</ele><time>2026-05-01T06:22:39Z</time></trkpt><trkpt lat="40.61938793629037" lon="9.11062959815631"><ele>488.0</ele><time>2026-05-01T06:22:40Z</time></trkpt><trkpt lat="40.619524611703305" lon="9.110657867263447"><ele>489.0</ele><time>2026-05-01T06:22:41Z</time></trkpt><trkpt lat="40.619666338419705" lon="9.110680254559352"><ele>490.0</ele><time>2026-05-01T06:22:42Z</time></trkpt><trkpt lat="40.61981041176756" lon="9.110701519150934"><ele>491.0</ele><time>2026-05-01T06:22:43Z</time></trkpt><trkpt lat="40.619942611791316" lon="9.11073334908753"><ele>492.0</ele><time>2026-05-01T06:22:43.999Z</time></trkpt><trkpt lat="40.62007446758584" lon="9.110766182962605"><ele>489.0</ele><time>2026-05-01T06:22:44.999Z</time></trkpt><trkpt lat="40.62020064578493" lon="9.110811363371877"><ele>486.0</ele><time>2026-05-01T06:22:46Z</time></trkpt><trkpt lat="40.62032039735986" lon="9.110874433948275"><ele>483.0</ele><time>2026-05-01T06:22:47Z</time></trkpt><trkpt lat="40.62044010802922" lon="9.11095614956112"><ele>480.0</ele><time>2026-05-01T06:22:48Z</time></trkpt><trkpt lat="40.62055978661325" lon="9.111050355458136"><ele>480.0</ele><time>2026-05-01T06:22:49Z</time></trkpt><trkpt lat="40.620675246833414" lon="9.111152098227146"><ele>480.0</ele><time>2026-05-01T06:22:50Z</time></trkpt><trkpt lat="40.62079026079831" lon="9.111251376989213"><ele>480.0</ele><time>2026-05-01T06:22:51Z</time></trkpt><trkpt lat="40.62091455384464" lon="9.11134124874044"><ele>480.0</ele><time>2026-05-01T06:22:52Z</time></trkpt><trkpt lat="40.62104920852203" lon="9.111405483705438"><ele>481.0</ele><time>2026-05-01T06:22:53Z</time></trkpt><trkpt lat="40.621188709938146" lon="9.111437485001334"><ele>482.0</ele><time>2026-05-01T06:22:54Z</time></trkpt><trkpt lat="40.62132583901535" lon="9.111451752457297"><ele>483.0</ele><time>2026-05-01T06:22:55Z</time></trkpt><trkpt lat="40.62146843007837" lon="9.111455420484534"><ele>484.0</ele><time>2026-05-01T06:22:56Z</time></trkpt><trkpt lat="40.62160851939647" lon="9.111450634451552"><ele>484.0</ele><time>2026-05-01T06:22:57Z</time></trkpt><trkpt lat="40.62174452334824" lon="9.11143857953497"><ele>484.0</ele><time>2026-05-01T06:22:58Z</time></trkpt><trkpt lat="40.621874673860916" lon="9.111404791067502"><ele>484.0</ele><time>2026-05-01T06:22:59Z</time></trkpt><trkpt lat="40.62200773514501" lon="9.111350163445987"><ele>484.0</ele><time>2026-05-01T06:23:00Z</time></trkpt><trkpt lat="40.62213939353348" lon="9.111283442707384"><ele>479.5</ele><time>2026-05-01T06:23:01Z</time></trkpt><trkpt lat="40.622268832472976" lon="9.111208563251559"><ele>475.0</ele><time>2026-05-01T06:23:02Z</time></trkpt><trkpt lat="40.622385240353786" lon="9.111121203269885"><ele>470.5</ele><time>2026-05-01T06:23:03Z</time></trkpt><trkpt lat="40.62248144646037" lon="9.111022160513844"><ele>466.0</ele><time>2026-05-01T06:23:04Z</time></trkpt><trkpt lat="40.62256112512492" lon="9.110914449977635"><ele>466.0</ele><time>2026-05-01T06:23:05Z</time></trkpt><trkpt lat="40.622625698048004" lon="9.110803182346416"><ele>466.0</ele><time>2026-05-01T06:23:06Z</time></trkpt><trkpt lat="40.6226835562356" lon="9.110689243063868"><ele>466.0</ele><time>2026-05-01T06:23:07Z</time></trkpt><trkpt lat="40.62270270059805" lon="9.110536984005218"><ele>466.0</ele><time>2026-05-01T06:23:08Z</time></trkpt><trkpt lat="40.6227106090368" lon="9.11039726622725"><ele>466.0</ele><time>2026-05-01T06:23:09Z</time></trkpt><trkpt lat="40.622714361076454" lon="9.110236993617187"><ele>468.5</ele><time>2026-05-01T06:23:10Z</time></trkpt><trkpt lat="40.622718596353536" lon="9.110070482144977"><ele>471.0</ele><time>2026-05-01T06:23:11Z</time></trkpt><trkpt lat="40.62272608854919" lon="9.109905052828228"><ele>473.5</ele><time>2026-05-01T06:23:12Z</time></trkpt><trkpt lat="40.62273045231307" lon="9.109735964823244"><ele>476.0</ele><time>2026-05-01T06:23:13Z</time></trkpt><trkpt lat="40.62273231293067" lon="9.109567471212095"><ele>476.75</ele><time>2026-05-01T06:23:14Z</time></trkpt><trkpt lat="40.62273298271407" lon="9.109403482966535"><ele>477.5</ele><time>2026-05-01T06:23:15Z</time></trkpt><trkpt lat="40.6227584985562" lon="9.109234568196882"><ele>478.25</ele><time>2026-05-01T06:23:16Z</time></trkpt><trkpt lat="40.62277401138584" lon="9.109071383191834"><ele>479.0</ele><time>2026-05-01T06:23:17Z</time></trkpt><trkpt lat="40.622793187748584" lon="9.108914106380906"><ele>475.25</ele><time>2026-05-01T06:23:18Z</time></trkpt><trkpt lat="40.622819212532384" lon="9.1087534055099"><ele>471.5</ele><time>2026-05-01T06:23:19Z</time></trkpt><trkpt lat="40.62284912190324" lon="9.108593843234651"><ele>467.75</ele><time>2026-05-01T06:23:20Z</time></trkpt><trkpt lat="40.622873543233446" lon="9.108436291010857"><ele>464.0</ele><time>2026-05-01T06:23:21Z</time></trkpt><trkpt lat="40.62290076038077" lon="9.108279860346576"><ele>467.6</ele><time>2026-05-01T06:23:22Z</time></trkpt><trkpt lat="40.62292794075455" lon="9.108143208658307"><ele>471.2</ele><time>2026-05-01T06:23:23Z</time></trkpt><trkpt lat="40.62296888411098" lon="9.10802525800412"><ele>474.80000000000007</ele><time>2026-05-01T06:23:24Z</time></trkpt><trkpt lat="40.623025169986896" lon="9.107925393252174"><ele>478.40000000000003</ele><time>2026-05-01T06:23:25Z</time></trkpt><trkpt lat="40.62310952474833" lon="9.107835950541464"><ele>482.0</ele><time>2026-05-01T06:23:26Z</time></trkpt><trkpt lat="40.62320052738811" lon="9.107762949440236"><ele>482.0</ele><time>2026-05-01T06:23:27Z</time></trkpt><trkpt lat="40.62329844473775" lon="9.107688080351046"><ele>482.0</ele><time>2026-05-01T06:23:28Z</time></trkpt><trkpt lat="40.623393472729425" lon="9.107600114911865"><ele>482.0</ele><time>2026-05-01T06:23:29Z</time></trkpt><trkpt lat="40.62347618048665" lon="9.107498074294684"><ele>482.0</ele><time>2026-05-01T06:23:30Z</time></trkpt><trkpt lat="40.623550879779586" lon="9.107382084898283"><ele>482.25</ele><time>2026-05-01T06:23:31Z</time></trkpt><trkpt lat="40.62361859547454" lon="9.107260562506044"><ele>482.5</ele><time>2026-05-01T06:23:32Z</time></trkpt><trkpt lat="40.62367273827974" lon="9.107130357679523"><ele>482.75</ele><time>2026-05-01T06:23:33Z</time></trkpt><trkpt lat="40.62372168110274" lon="9.106993572266902"><ele>483.0</ele><time>2026-05-01T06:23:34Z</time></trkpt><trkpt lat="40.62377617503319" lon="9.106866105208017"><ele>483.0</ele><time>2026-05-01T06:23:35Z</time></trkpt><trkpt lat="40.62383289331919" lon="9.106757211209407"><ele>482.99999999999994</ele><time>2026-05-01T06:23:36Z</time></trkpt><trkpt lat="40.62389148753209" lon="9.106668434003282"><ele>482.99999999999994</ele><time>2026-05-01T06:23:37Z</time></trkpt><trkpt lat="40.62396909912663" lon="9.106611498457948"><ele>483.0</ele><time>2026-05-01T06:23:38Z</time></trkpt><trkpt lat="40.62406225622409" lon="9.106582629536133"><ele>483.0</ele><time>2026-05-01T06:23:39Z</time></trkpt><trkpt lat="40.62414824762682" lon="9.106585920619219"><ele>483.0</ele><time>2026-05-01T06:23:40Z</time></trkpt><trkpt lat="40.62424039078804" lon="9.10662447476448"><ele>482.99999999999994</ele><time>2026-05-01T06:23:41Z</time></trkpt><trkpt lat="40.62433953336728" lon="9.106673585470185"><ele>482.99999999999994</ele><time>2026-05-01T06:23:42Z</time></trkpt><trkpt lat="40.62444192479211" lon="9.106727029479556"><ele>483.0</ele><time>2026-05-01T06:23:43Z</time></trkpt><trkpt lat="40.62454712049177" lon="9.106781577495664"><ele>483.0</ele><time>2026-05-01T06:23:44Z</time></trkpt><trkpt lat="40.6246552364409" lon="9.106837857085402"><ele>484.75</ele><time>2026-05-01T06:23:45Z</time></trkpt><trkpt lat="40.624772571322936" lon="9.106893004290434"><ele>486.5</ele><time>2026-05-01T06:23:46Z</time></trkpt><trkpt lat="40.624885941213314" lon="9.10694734875628"><ele>488.25</ele><time>2026-05-01T06:23:47Z</time></trkpt><trkpt lat="40.624995804664216" lon="9.106990662098237"><ele>490.0</ele><time>2026-05-01T06:23:48Z</time></trkpt><trkpt lat="40.62509369025831" lon="9.107003823522833"><ele>490.0</ele><time>2026-05-01T06:23:49Z</time></trkpt><trkpt lat="40.625192435782175" lon="9.106984812605488"><ele>490.0</ele><time>2026-05-01T06:23:50Z</time></trkpt><trkpt lat="40.62528928912986" lon="9.106935129966777"><ele>490.0</ele><time>2026-05-01T06:23:51Z</time></trkpt><trkpt lat="40.625385780004656" lon="9.106862579108247"><ele>490.0</ele><time>2026-05-01T06:23:52Z</time></trkpt><trkpt lat="40.62549494359847" lon="9.106781615661003"><ele>490.0</ele><time>2026-05-01T06:23:53Z</time></trkpt><trkpt lat="40.625608551605275" lon="9.106695963003101"><ele>487.25</ele><time>2026-05-01T06:23:54Z</time></trkpt><trkpt lat="40.625723793639054" lon="9.106610445481122"><ele>484.5</ele><time>2026-05-01T06:23:55Z</time></trkpt><trkpt lat="40.6258369373344" lon="9.106528092903693"><ele>481.75</ele><time>2026-05-01T06:23:56Z</time></trkpt><trkpt lat="40.62595263141764" lon="9.106440398611072"><ele>479.0</ele><time>2026-05-01T06:23:57Z</time></trkpt><trkpt lat="40.62606830369151" lon="9.106365254785393"><ele>483.25</ele><time>2026-05-01T06:23:58Z</time></trkpt><trkpt lat="40.62618358715105" lon="9.106315101407242"><ele>487.5</ele><time>2026-05-01T06:23:59Z</time></trkpt><trkpt lat="40.62630022846238" lon="9.106288312879654"><ele>491.75</ele><time>2026-05-01T06:24:00Z</time></trkpt><trkpt lat="40.62642582775368" lon="9.106298819828247"><ele>496.0</ele><time>2026-05-01T06:24:01Z</time></trkpt><trkpt lat="40.62655492444415" lon="9.10634080109281"><ele>496.0</ele><time>2026-05-01T06:24:02Z</time></trkpt><trkpt lat="40.62667180874359" lon="9.106417042170706"><ele>496.0</ele><time>2026-05-01T06:24:03Z</time></trkpt><trkpt lat="40.626802734452525" lon="9.106467648628723"><ele>496.0</ele><time>2026-05-01T06:24:04Z</time></trkpt><trkpt lat="40.62692505268743" lon="9.106538040151415"><ele>496.0</ele><time>2026-05-01T06:24:05Z</time></trkpt><trkpt lat="40.62704612015593" lon="9.10660214535104"><ele>493.6</ele><time>2026-05-01T06:24:06Z</time></trkpt><trkpt lat="40.627157551363574" lon="9.10665529467874"><ele>491.20000000000005</ele><time>2026-05-01T06:24:07Z</time></trkpt><trkpt lat="40.627257982467185" lon="9.106684949042059"><ele>488.79999999999995</ele><time>2026-05-01T06:24:08Z</time></trkpt><trkpt lat="40.62733727107051" lon="9.1067047269929"><ele>486.4</ele><time>2026-05-01T06:24:09Z</time></trkpt><trkpt lat="40.62742482468363" lon="9.106672304817241"><ele>484.0</ele><time>2026-05-01T06:24:10Z</time></trkpt><trkpt lat="40.627510077310035" lon="9.106608345007835"><ele>486.2</ele><time>2026-05-01T06:24:11Z</time></trkpt><trkpt lat="40.627563119476974" lon="9.106496520166868"><ele>488.4</ele><time>2026-05-01T06:24:12Z</time></trkpt><trkpt lat="40.62761427144469" lon="9.106382722423596"><ele>490.6</ele><time>2026-05-01T06:24:13Z</time></trkpt><trkpt lat="40.62764137558371" lon="9.106259359205284"><ele>492.8</ele><time>2026-05-01T06:24:14Z</time></trkpt><trkpt lat="40.627662544621224" lon="9.106118840488051"><ele>495.0</ele><time>2026-05-01T06:24:15Z</time></trkpt><trkpt lat="40.62767760315173" lon="9.105966594541119"><ele>495.0</ele><time>2026-05-01T06:24:16Z</time></trkpt><trkpt lat="40.62769329041333" lon="9.105798282915018"><ele>495.0</ele><time>2026-05-01T06:24:17Z</time></trkpt><trkpt lat="40.62771137030394" lon="9.105623421007568"><ele>495.0</ele><time>2026-05-01T06:24:18Z</time></trkpt><trkpt lat="40.627726910467025" lon="9.105448807752666"><ele>495.0</ele><time>2026-05-01T06:24:19Z</time></trkpt><trkpt lat="40.62773403992247" lon="9.105273214683676"><ele>496.2</ele><time>2026-05-01T06:24:20Z</time></trkpt><trkpt lat="40.6277473165388" lon="9.105102975639129"><ele>497.4</ele><time>2026-05-01T06:24:21Z</time></trkpt><trkpt lat="40.62777024383819" lon="9.10494957159482"><ele>498.6</ele><time>2026-05-01T06:24:22Z</time></trkpt><trkpt lat="40.62780464837414" lon="9.104819486366468"><ele>499.8</ele><time>2026-05-01T06:24:23Z</time></trkpt><trkpt lat="40.62784781748303" lon="9.10472093780759"><ele>501.0</ele><time>2026-05-01T06:24:24Z</time></trkpt><trkpt lat="40.627912132704196" lon="9.104646472612455"><ele>501.8333333333333</ele><time>2026-05-01T06:24:25Z</time></trkpt><trkpt lat="40.627992697652616" lon="9.104598648883075"><ele>502.66666666666663</ele><time>2026-05-01T06:24:26Z</time></trkpt><trkpt lat="40.62805715637475" lon="9.104563128562136"><ele>503.5</ele><time>2026-05-01T06:24:27Z</time></trkpt><trkpt lat="40.62812391374511" lon="9.104569571005317"><ele>504.3333333333333</ele><time>2026-05-01T06:24:28Z</time></trkpt><trkpt lat="40.628229134085714" lon="9.104598075834994"><ele>505.16666666666663</ele><time>2026-05-01T06:24:29Z</time></trkpt><trkpt lat="40.62828826459547" lon="9.104674886368203"><ele>506.0</ele><time>2026-05-01T06:24:30Z</time></trkpt><trkpt lat="40.62820011650476" lon="9.105085125170932"><ele>500.0</ele><time>2026-05-01T06:24:31Z</time></trkpt><trkpt lat="40.628265282802495" lon="9.105288482945376"><ele>494.0</ele><time>2026-05-01T06:24:32Z</time></trkpt><trkpt lat="40.62835026839409" lon="9.10549480117418"><ele>488.0</ele><time>2026-05-01T06:24:33Z</time></trkpt><trkpt lat="40.62843230600371" lon="9.105711631375245"><ele>484.5</ele><time>2026-05-01T06:24:34Z</time></trkpt><trkpt lat="40.628528571079244" lon="9.10589495229693"><ele>481.0</ele><time>2026-05-01T06:24:35Z</time></trkpt><trkpt lat="40.628633171053025" lon="9.106039565460112"><ele>477.5</ele><time>2026-05-01T06:24:36Z</time></trkpt><trkpt lat="40.628735272251106" lon="9.106121857065846"><ele>474.0</ele><time>2026-05-01T06:24:37Z</time></trkpt><trkpt lat="40.62883257478068" lon="9.106209224263091"><ele>501.0</ele><time>2026-05-01T06:24:38Z</time></trkpt><trkpt lat="40.62921609596325" lon="9.105303681642926"><ele>501.0</ele><time>2026-05-01T06:24:39Z</time></trkpt><trkpt lat="40.6293311602742" lon="9.105288991425969"><ele>501.0</ele><time>2026-05-01T06:24:40Z</time></trkpt><trkpt lat="40.62944723609118" lon="9.105247381277684"><ele>501.0</ele><time>2026-05-01T06:24:41Z</time></trkpt><trkpt lat="40.6295524701927" lon="9.105182515294581"><ele>501.0</ele><time>2026-05-01T06:24:42Z</time></trkpt><trkpt lat="40.629645223359624" lon="9.105092381690948"><ele>498.25</ele><time>2026-05-01T06:24:43Z</time></trkpt><trkpt lat="40.62973053843918" lon="9.10498321697315"><ele>495.5</ele><time>2026-05-01T06:24:44Z</time></trkpt><trkpt lat="40.62982418929752" lon="9.104878127231293"><ele>492.75</ele><time>2026-05-01T06:24:45Z</time></trkpt><trkpt lat="40.62992321337804" lon="9.104798375745064"><ele>490.0</ele><time>2026-05-01T06:24:46Z</time></trkpt><trkpt lat="40.63002955721512" lon="9.104740522049722"><ele>491.0</ele><time>2026-05-01T06:24:47Z</time></trkpt><trkpt lat="40.63013762859104" lon="9.104689358241304"><ele>492.0</ele><time>2026-05-01T06:24:48Z</time></trkpt><trkpt lat="40.63024247049436" lon="9.104625442054957"><ele>493.0</ele><time>2026-05-01T06:24:49Z</time></trkpt><trkpt lat="40.630335628853025" lon="9.10452833589363"><ele>494.0</ele><time>2026-05-01T06:24:50.001Z</time></trkpt><trkpt lat="40.6304170206463" lon="9.104419592122529"><ele>494.0</ele><time>2026-05-01T06:24:51.001Z</time></trkpt><trkpt lat="40.63048770980783" lon="9.104290882116826"><ele>494.0</ele><time>2026-05-01T06:24:52Z</time></trkpt><trkpt lat="40.63054163158259" lon="9.104156154481162"><ele>494.0</ele><time>2026-05-01T06:24:53Z</time></trkpt><trkpt lat="40.630584510585365" lon="9.104007842367585"><ele>494.0</ele><time>2026-05-01T06:24:54Z</time></trkpt><trkpt lat="40.63063265145648" lon="9.103866432850364"><ele>501.79999999999995</ele><time>2026-05-01T06:24:55Z</time></trkpt><trkpt lat="40.63068731545593" lon="9.103744622982974"><ele>509.59999999999997</ele><time>2026-05-01T06:24:56Z</time></trkpt><trkpt lat="40.63076497526378" lon="9.10364727313668"><ele>517.4</ele><time>2026-05-01T06:24:57Z</time></trkpt><trkpt lat="40.630859028434976" lon="9.103577974585669"><ele>525.1999999999999</ele><time>2026-05-01T06:24:58Z</time></trkpt><trkpt lat="40.63096437009376" lon="9.10354757409756"><ele>533.0</ele><time>2026-05-01T06:24:59Z</time></trkpt><trkpt lat="40.6310756211545" lon="9.103530581380335"><ele>526.75</ele><time>2026-05-01T06:25:00Z</time></trkpt><trkpt lat="40.631190402079156" lon="9.103511540573633"><ele>520.5</ele><time>2026-05-01T06:25:01Z</time></trkpt><trkpt lat="40.631313166640375" lon="9.103519823609275"><ele>514.25</ele><time>2026-05-01T06:25:02Z</time></trkpt><trkpt lat="40.63141355203432" lon="9.103469069904163"><ele>508.0</ele><time>2026-05-01T06:25:03Z</time></trkpt><trkpt lat="40.631501323122585" lon="9.103394475042768"><ele>508.0</ele><time>2026-05-01T06:25:04Z</time></trkpt><trkpt lat="40.63157956169366" lon="9.10329588682908"><ele>507.99999999999994</ele><time>2026-05-01T06:25:05Z</time></trkpt><trkpt lat="40.63164613635727" lon="9.103188991737465"><ele>507.99999999999994</ele><time>2026-05-01T06:25:06Z</time></trkpt><trkpt lat="40.631711980304175" lon="9.103096849283478"><ele>508.0</ele><time>2026-05-01T06:25:07Z</time></trkpt><trkpt lat="40.631803752325496" lon="9.103021169477195"><ele>508.0</ele><time>2026-05-01T06:25:08Z</time></trkpt><trkpt lat="40.63189731874783" lon="9.102958666166632"><ele>512.6</ele><time>2026-05-01T06:25:09Z</time></trkpt><trkpt lat="40.632000575312965" lon="9.102918814026193"><ele>517.1999999999999</ele><time>2026-05-01T06:25:10Z</time></trkpt><trkpt lat="40.63208578712224" lon="9.102902529011834"><ele>521.8</ele><time>2026-05-01T06:25:11Z</time></trkpt><trkpt lat="40.63216630627557" lon="9.102918911135266"><ele>526.4</ele><time>2026-05-01T06:25:12Z</time></trkpt><trkpt lat="40.63224692152702" lon="9.102971680794733"><ele>531.0</ele><time>2026-05-01T06:25:13Z</time></trkpt><trkpt lat="40.63232001056458" lon="9.103057815482606"><ele>531.0</ele><time>2026-05-01T06:25:14Z</time></trkpt><trkpt lat="40.63237938958039" lon="9.103166665585924"><ele>531.0</ele><time>2026-05-01T06:25:15Z</time></trkpt><trkpt lat="40.632430587537755" lon="9.103291650128952"><ele>531.0</ele><time>2026-05-01T06:25:16Z</time></trkpt><trkpt lat="40.63249099742916" lon="9.103427997014585"><ele>531.0</ele><time>2026-05-01T06:25:17Z</time></trkpt><trkpt lat="40.63254627203688" lon="9.103556880622937"><ele>531.0</ele><time>2026-05-01T06:25:18Z</time></trkpt><trkpt lat="40.6326136526829" lon="9.10368502247524"><ele>528.6</ele><time>2026-05-01T06:25:19Z</time></trkpt><trkpt lat="40.63267975333478" lon="9.10380153916288"><ele>526.2</ele><time>2026-05-01T06:25:20Z</time></trkpt><trkpt lat="40.63276764838757" lon="9.103899674123044"><ele>523.8</ele><time>2026-05-01T06:25:21Z</time></trkpt><trkpt lat="40.632856057474" lon="9.103977713706108"><ele>521.4</ele><time>2026-05-01T06:25:22Z</time></trkpt><trkpt lat="40.63296322748645" lon="9.104025870177399"><ele>519.0</ele><time>2026-05-01T06:25:23Z</time></trkpt><trkpt lat="40.633070869957564" lon="9.104041337706036"><ele>519.75</ele><time>2026-05-01T06:25:24Z</time></trkpt><trkpt lat="40.633183389303085" lon="9.104077197019713"><ele>520.5</ele><time>2026-05-01T06:25:25Z</time></trkpt><trkpt lat="40.633297482772754" lon="9.104081794408224"><ele>521.25</ele><time>2026-05-01T06:25:26Z</time></trkpt><trkpt lat="40.633414406962146" lon="9.104098054307112"><ele>522.0</ele><time>2026-05-01T06:25:27Z</time></trkpt><trkpt lat="40.63354963486236" lon="9.104127683582606"><ele>523.25</ele><time>2026-05-01T06:25:28Z</time></trkpt><trkpt lat="40.633682407284724" lon="9.104133111104813"><ele>524.5</ele><time>2026-05-01T06:25:29Z</time></trkpt><trkpt lat="40.633813977443424" lon="9.10416063044606"><ele>525.75</ele><time>2026-05-01T06:25:30Z</time></trkpt><trkpt lat="40.63394155458663" lon="9.104184283655634"><ele>527.0</ele><time>2026-05-01T06:25:31Z</time></trkpt><trkpt lat="40.63407551841408" lon="9.104190414045396"><ele>527.0</ele><time>2026-05-01T06:25:32Z</time></trkpt><trkpt lat="40.634214577166794" lon="9.10419612382979"><ele>527.0</ele><time>2026-05-01T06:25:33Z</time></trkpt><trkpt lat="40.634340512176735" lon="9.104185945228759"><ele>527.0</ele><time>2026-05-01T06:25:34Z</time></trkpt><trkpt lat="40.63447584974797" lon="9.104163412043306"><ele>527.0</ele><time>2026-05-01T06:25:35Z</time></trkpt><trkpt lat="40.63460088594585" lon="9.104135124386595"><ele>528.5</ele><time>2026-05-01T06:25:36Z</time></trkpt><trkpt lat="40.63471998451569" lon="9.104105944189609"><ele>530.0</ele><time>2026-05-01T06:25:37Z</time></trkpt><trkpt lat="40.63484717174553" lon="9.104076800523695"><ele>531.5</ele><time>2026-05-01T06:25:38Z</time></trkpt><trkpt lat="40.63497189512719" lon="9.104077815635081"><ele>533.0</ele><time>2026-05-01T06:25:39Z</time></trkpt><trkpt lat="40.63508990395782" lon="9.1040928982788"><ele>533.0</ele><time>2026-05-01T06:25:40Z</time></trkpt><trkpt lat="40.63518772157266" lon="9.10412246680289"><ele>533.0</ele><time>2026-05-01T06:25:41Z</time></trkpt><trkpt lat="40.63527404160527" lon="9.104158835936552"><ele>533.0</ele><time>2026-05-01T06:25:42Z</time></trkpt><trkpt lat="40.63532908180425" lon="9.104236688449772"><ele>533.0</ele><time>2026-05-01T06:25:43Z</time></trkpt><trkpt lat="40.635368700808364" lon="9.104342247478689"><ele>533.0</ele><time>2026-05-01T06:25:44Z</time></trkpt><trkpt lat="40.63537366961668" lon="9.104466652977258"><ele>540.0</ele><time>2026-05-01T06:25:45Z</time></trkpt><trkpt lat="40.63540648134703" lon="9.10459198854411"><ele>547.0</ele><time>2026-05-01T06:25:46Z</time></trkpt><trkpt lat="40.63541767810916" lon="9.10473711294793"><ele>554.0</ele><time>2026-05-01T06:25:47Z</time></trkpt><trkpt lat="40.6354200990452" lon="9.104894388544427"><ele>561.0</ele><time>2026-05-01T06:25:48Z</time></trkpt><trkpt lat="40.635414426853046" lon="9.105060643405277"><ele>561.0</ele><time>2026-05-01T06:25:49Z</time></trkpt><trkpt lat="40.635396917375175" lon="9.105235633176093"><ele>561.0</ele><time>2026-05-01T06:25:50Z</time></trkpt><trkpt lat="40.63537572709403" lon="9.105394608734018"><ele>561.0</ele><time>2026-05-01T06:25:51Z</time></trkpt><trkpt lat="40.63535955779563" lon="9.10554651422512"><ele>561.0</ele><time>2026-05-01T06:25:52Z</time></trkpt><trkpt lat="40.635357190475716" lon="9.105683471652391"><ele>558.8</ele><time>2026-05-01T06:25:53Z</time></trkpt><trkpt lat="40.635382235430164" lon="9.105810274478106"><ele>556.6</ele><time>2026-05-01T06:25:54Z</time></trkpt><trkpt lat="40.635425652859894" lon="9.105912319193331"><ele>554.4</ele><time>2026-05-01T06:25:55Z</time></trkpt><trkpt lat="40.6354963981654" lon="9.106021690119345"><ele>552.2</ele><time>2026-05-01T06:25:56Z</time></trkpt><trkpt lat="40.63558012862342" lon="9.106117448289393"><ele>550.0</ele><time>2026-05-01T06:25:57Z</time></trkpt><trkpt lat="40.63567675760292" lon="9.106210485615508"><ele>550.0</ele><time>2026-05-01T06:25:58Z</time></trkpt><trkpt lat="40.63578891660476" lon="9.106303824413681"><ele>550.0</ele><time>2026-05-01T06:25:59Z</time></trkpt><trkpt lat="40.63590654878418" lon="9.106414820867396"><ele>550.0</ele><time>2026-05-01T06:26:00Z</time></trkpt><trkpt lat="40.63603102265949" lon="9.10651757927815"><ele>550.0</ele><time>2026-05-01T06:26:01Z</time></trkpt><trkpt lat="40.63614728960939" lon="9.106614247781424"><ele>550.0</ele><time>2026-05-01T06:26:02Z</time></trkpt><trkpt lat="40.636266659742745" lon="9.106704479962733"><ele>550.0</ele><time>2026-05-01T06:26:03Z</time></trkpt><trkpt lat="40.63637828606179" lon="9.10679526149724"><ele>550.0</ele><time>2026-05-01T06:26:04Z</time></trkpt><trkpt lat="40.63650818994439" lon="9.106822027589839"><ele>550.0</ele><time>2026-05-01T06:26:05Z</time></trkpt><trkpt lat="40.63663025822728" lon="9.106842390589348"><ele>550.0</ele><time>2026-05-01T06:26:06Z</time></trkpt><trkpt lat="40.63674735061089" lon="9.106845404552187"><ele>550.0</ele><time>2026-05-01T06:26:07Z</time></trkpt><trkpt lat="40.63684733014695" lon="9.106859149775849"><ele>550.0</ele><time>2026-05-01T06:26:08Z</time></trkpt><trkpt lat="40.63693084480004" lon="9.106899937992859"><ele>550.0</ele><time>2026-05-01T06:26:09Z</time></trkpt><trkpt lat="40.63700549428639" lon="9.10697513296238"><ele>550.0</ele><time>2026-05-01T06:26:10Z</time></trkpt><trkpt lat="40.63704066255087" lon="9.107079829317842"><ele>553.5</ele><time>2026-05-01T06:26:11Z</time></trkpt><trkpt lat="40.63708606399238" lon="9.107197693584965"><ele>557.0</ele><time>2026-05-01T06:26:12Z</time></trkpt><trkpt lat="40.637149204742556" lon="9.107322931178793"><ele>560.5</ele><time>2026-05-01T06:26:13Z</time></trkpt><trkpt lat="40.637182468743816" lon="9.107473095412498"><ele>564.0</ele><time>2026-05-01T06:26:14Z</time></trkpt><trkpt lat="40.637234576204264" lon="9.10763303732676"><ele>564.0</ele><time>2026-05-01T06:26:15Z</time></trkpt><trkpt lat="40.63728633185412" lon="9.107790518390416"><ele>564.0</ele><time>2026-05-01T06:26:16Z</time></trkpt><trkpt lat="40.63733650795966" lon="9.107958892926556"><ele>564.0</ele><time>2026-05-01T06:26:17Z</time></trkpt><trkpt lat="40.63738272676807" lon="9.108122923690352"><ele>564.0</ele><time>2026-05-01T06:26:18Z</time></trkpt><trkpt lat="40.63743154706784" lon="9.108292194603111"><ele>560.25</ele><time>2026-05-01T06:26:19Z</time></trkpt><trkpt lat="40.63748964190707" lon="9.108465998923778"><ele>556.5</ele><time>2026-05-01T06:26:20Z</time></trkpt><trkpt lat="40.63756044417937" lon="9.108628594983527"><ele>552.75</ele><time>2026-05-01T06:26:21Z</time></trkpt><trkpt lat="40.637649759454284" lon="9.108790731166454"><ele>549.0</ele><time>2026-05-01T06:26:22Z</time></trkpt><trkpt lat="40.63774069007788" lon="9.108959617555595"><ele>558.3333333333334</ele><time>2026-05-01T06:26:23Z</time></trkpt><trkpt lat="40.63782687770533" lon="9.109129696177202"><ele>567.6666666666667</ele><time>2026-05-01T06:26:24Z</time></trkpt><trkpt lat="40.63790555781149" lon="9.109312057804951"><ele>577.0</ele><time>2026-05-01T06:26:25Z</time></trkpt><trkpt lat="40.63797183112118" lon="9.109493846552391"><ele>577.0</ele><time>2026-05-01T06:26:26Z</time></trkpt><trkpt lat="40.638027601753585" lon="9.109684477271138"><ele>577.0</ele><time>2026-05-01T06:26:27Z</time></trkpt><trkpt lat="40.63807701196542" lon="9.1098839377448"><ele>577.0</ele><time>2026-05-01T06:26:28Z</time></trkpt><trkpt lat="40.63812773319739" lon="9.110073470747288"><ele>572.5</ele><time>2026-05-01T06:26:29Z</time></trkpt><trkpt lat="40.63817205239235" lon="9.110244194836023"><ele>568.0</ele><time>2026-05-01T06:26:30Z</time></trkpt><trkpt lat="40.63822862943946" lon="9.110396838753827"><ele>563.5</ele><time>2026-05-01T06:26:31Z</time></trkpt><trkpt lat="40.638293559841266" lon="9.110513785178947"><ele>559.0</ele><time>2026-05-01T06:26:32Z</time></trkpt><trkpt lat="40.63837287846056" lon="9.110590162283163"><ele>559.0</ele><time>2026-05-01T06:26:33Z</time></trkpt><trkpt lat="40.63846421967541" lon="9.1106377132923"><ele>559.0</ele><time>2026-05-01T06:26:34Z</time></trkpt><trkpt lat="40.63856050655268" lon="9.110647150022498"><ele>559.0</ele><time>2026-05-01T06:26:35Z</time></trkpt><trkpt lat="40.6386684710744" lon="9.110639278889485"><ele>559.0</ele><time>2026-05-01T06:26:36Z</time></trkpt><trkpt lat="40.63878922323086" lon="9.110622879861058"><ele>559.0</ele><time>2026-05-01T06:26:37Z</time></trkpt><trkpt lat="40.638906254475984" lon="9.110603184787685"><ele>561.75</ele><time>2026-05-01T06:26:38Z</time></trkpt><trkpt lat="40.639031148897494" lon="9.11055126487491"><ele>564.5</ele><time>2026-05-01T06:26:39Z</time></trkpt><trkpt lat="40.63915014922572" lon="9.110478196931034"><ele>567.25</ele><time>2026-05-01T06:26:40Z</time></trkpt><trkpt lat="40.639265899459126" lon="9.110397040478652"><ele>570.0</ele><time>2026-05-01T06:26:41Z</time></trkpt><trkpt lat="40.639378006008194" lon="9.110313546654949"><ele>568.4</ele><time>2026-05-01T06:26:42Z</time></trkpt><trkpt lat="40.639485445834666" lon="9.110247107937605"><ele>566.8</ele><time>2026-05-01T06:26:43Z</time></trkpt><trkpt lat="40.639607092540224" lon="9.110197799313186"><ele>565.2</ele><time>2026-05-01T06:26:44Z</time></trkpt><trkpt lat="40.63971283023384" lon="9.110191477629035"><ele>563.6</ele><time>2026-05-01T06:26:45Z</time></trkpt><trkpt lat="40.63980657514859" lon="9.11019946829494"><ele>562.0</ele><time>2026-05-01T06:26:46Z</time></trkpt><trkpt lat="40.63988533756789" lon="9.110249670139547"><ele>562.0</ele><time>2026-05-01T06:26:47Z</time></trkpt><trkpt lat="40.63995664776176" lon="9.110337848377453"><ele>562.0</ele><time>2026-05-01T06:26:48Z</time></trkpt><trkpt lat="40.63999743348153" lon="9.110466112647506"><ele>562.0</ele><time>2026-05-01T06:26:49Z</time></trkpt><trkpt lat="40.640037306740055" lon="9.110584770995558"><ele>562.0</ele><time>2026-05-01T06:26:50Z</time></trkpt><trkpt lat="40.64009829027283" lon="9.110710770940145"><ele>562.0</ele><time>2026-05-01T06:26:51Z</time></trkpt><trkpt lat="40.64016511291519" lon="9.110834178021463"><ele>562.25</ele><time>2026-05-01T06:26:52.001Z</time></trkpt><trkpt lat="40.64024662468749" lon="9.110943561810123"><ele>562.5</ele><time>2026-05-01T06:26:53Z</time></trkpt><trkpt lat="40.640336018268655" lon="9.111041779590034"><ele>562.75</ele><time>2026-05-01T06:26:54Z</time></trkpt><trkpt lat="40.64044817712305" lon="9.111142123412256"><ele>563.0</ele><time>2026-05-01T06:26:55Z</time></trkpt><trkpt lat="40.640556012733306" lon="9.111206913471369"><ele>563.0</ele><time>2026-05-01T06:26:56Z</time></trkpt><trkpt lat="40.640669001052416" lon="9.111257590051695"><ele>563.0</ele><time>2026-05-01T06:26:57Z</time></trkpt><trkpt lat="40.640786975427545" lon="9.111305986532177"><ele>563.0</ele><time>2026-05-01T06:26:58Z</time></trkpt><trkpt lat="40.640888976437665" lon="9.111358528325134"><ele>563.0</ele><time>2026-05-01T06:26:59.001Z</time></trkpt><trkpt lat="40.64098787561449" lon="9.111427673078804"><ele>563.0</ele><time>2026-05-01T06:27:00.001Z</time></trkpt><trkpt lat="40.641077553756865" lon="9.111518183147615"><ele>563.0</ele><time>2026-05-01T06:27:01.001Z</time></trkpt><trkpt lat="40.64113328049394" lon="9.111645559234901"><ele>563.0</ele><time>2026-05-01T06:27:02.001Z</time></trkpt><trkpt lat="40.641188831594896" lon="9.111781260965062"><ele>563.0</ele><time>2026-05-01T06:27:03.001Z</time></trkpt><trkpt lat="40.64123250902031" lon="9.111918682234812"><ele>560.6</ele><time>2026-05-01T06:27:04.001Z</time></trkpt><trkpt lat="40.64127041882305" lon="9.112036127705174"><ele>558.1999999999999</ele><time>2026-05-01T06:27:05.001Z</time></trkpt><trkpt lat="40.641319162014334" lon="9.11215303556245"><ele>555.8</ele><time>2026-05-01T06:27:06.001Z</time></trkpt><trkpt lat="40.641392964984924" lon="9.112255246387276"><ele>553.4</ele><time>2026-05-01T06:27:07.001Z</time></trkpt><trkpt lat="40.641492259811294" lon="9.112311072803864"><ele>551.0</ele><time>2026-05-01T06:27:08.001Z</time></trkpt><trkpt lat="40.6415863296438" lon="9.112365129479862"><ele>551.0</ele><time>2026-05-01T06:27:09.001Z</time></trkpt><trkpt lat="40.641684517952555" lon="9.112403092264245"><ele>551.0</ele><time>2026-05-01T06:27:10.001Z</time></trkpt><trkpt lat="40.64178877989806" lon="9.112411465096525"><ele>551.0</ele><time>2026-05-01T06:27:11.001Z</time></trkpt><trkpt lat="40.64189247441385" lon="9.112386194798022"><ele>551.0</ele><time>2026-05-01T06:27:12.001Z</time></trkpt><trkpt lat="40.64199156585176" lon="9.112349534458827"><ele>551.0</ele><time>2026-05-01T06:27:13.001Z</time></trkpt><trkpt lat="40.642096726252326" lon="9.112268845125772"><ele>545.75</ele><time>2026-05-01T06:27:14.001Z</time></trkpt><trkpt lat="40.64219830786764" lon="9.112175345003624"><ele>540.5</ele><time>2026-05-01T06:27:15.001Z</time></trkpt><trkpt lat="40.642304326049285" lon="9.11206762826877"><ele>535.25</ele><time>2026-05-01T06:27:16.001Z</time></trkpt><trkpt lat="40.64240815023561" lon="9.11195772215943"><ele>530.0</ele><time>2026-05-01T06:27:17.001Z</time></trkpt><trkpt lat="40.64250069997421" lon="9.111839683702945"><ele>530.0</ele><time>2026-05-01T06:27:18.001Z</time></trkpt><trkpt lat="40.64258951662264" lon="9.111722140627547"><ele>530.0</ele><time>2026-05-01T06:27:19.001Z</time></trkpt><trkpt lat="40.64267936720625" lon="9.111608691846465"><ele>530.0</ele><time>2026-05-01T06:27:20.001Z</time></trkpt><trkpt lat="40.642764834939804" lon="9.11150548272788"><ele>530.0</ele><time>2026-05-01T06:27:21.001Z</time></trkpt><trkpt lat="40.64284071292414" lon="9.111424810377551"><ele>535.6</ele><time>2026-05-01T06:27:22.001Z</time></trkpt><trkpt lat="40.64290020334504" lon="9.111358092978916"><ele>541.2</ele><time>2026-05-01T06:27:23.001Z</time></trkpt><trkpt lat="40.642985916139715" lon="9.111323080579536"><ele>546.8</ele><time>2026-05-01T06:27:25.001Z</time></trkpt><trkpt lat="40.64307569002163" lon="9.111329542004853"><ele>552.4</ele><time>2026-05-01T06:27:26.001Z</time></trkpt><trkpt lat="40.643151701980905" lon="9.111382085502921"><ele>558.0</ele><time>2026-05-01T06:27:27.001Z</time></trkpt><trkpt lat="40.643339464712916" lon="9.11150124913835"><ele>557.5</ele><time>2026-05-01T06:27:28.001Z</time></trkpt><trkpt lat="40.64343370148163" lon="9.111574212508783"><ele>557.0</ele><time>2026-05-01T06:27:29.001Z</time></trkpt><trkpt lat="40.643532196875015" lon="9.111653287054352"><ele>556.5</ele><time>2026-05-01T06:27:30.001Z</time></trkpt><trkpt lat="40.643619425717795" lon="9.11172331659097"><ele>556.0</ele><time>2026-05-01T06:27:31.001Z</time></trkpt><trkpt lat="40.64373389975753" lon="9.111801366702537"><ele>556.0</ele><time>2026-05-01T06:27:32.001Z</time></trkpt><trkpt lat="40.64384575717759" lon="9.111888302139516"><ele>556.0</ele><time>2026-05-01T06:27:33.001Z</time></trkpt><trkpt lat="40.64394875304092" lon="9.111976792458131"><ele>556.0</ele><time>2026-05-01T06:27:34.001Z</time></trkpt><trkpt lat="40.6440548348416" lon="9.112060537141282"><ele>556.0</ele><time>2026-05-01T06:27:35.001Z</time></trkpt><trkpt lat="40.644159078566545" lon="9.112141342205268"><ele>556.0</ele><time>2026-05-01T06:27:36.001Z</time></trkpt><trkpt lat="40.64426428491275" lon="9.112208503554474"><ele>556.0</ele><time>2026-05-01T06:27:37.001Z</time></trkpt><trkpt lat="40.644372102316396" lon="9.112263084150827"><ele>556.0</ele><time>2026-05-01T06:27:38.001Z</time></trkpt><trkpt lat="40.6444856816874" lon="9.112306232907297"><ele>556.0</ele><time>2026-05-01T06:27:39.001Z</time></trkpt><trkpt lat="40.64460969193794" lon="9.11234715087305"><ele>559.5</ele><time>2026-05-01T06:27:40.001Z</time></trkpt><trkpt lat="40.64473879892697" lon="9.112382321154131"><ele>563.0</ele><time>2026-05-01T06:27:41.001Z</time></trkpt><trkpt lat="40.644872215474386" lon="9.112412472473983"><ele>566.5</ele><time>2026-05-01T06:27:42.001Z</time></trkpt><trkpt lat="40.64501317547485" lon="9.11243343504514"><ele>570.0</ele><time>2026-05-01T06:27:43.001Z</time></trkpt><trkpt lat="40.64515205562731" lon="9.112452757461432"><ele>560.5</ele><time>2026-05-01T06:27:44.001Z</time></trkpt><trkpt lat="40.64529620968746" lon="9.112475212908807"><ele>551.0</ele><time>2026-05-01T06:27:45.001Z</time></trkpt><trkpt lat="40.6454389052665" lon="9.112497683854656"><ele>541.5</ele><time>2026-05-01T06:27:46.001Z</time></trkpt><trkpt lat="40.64557848870839" lon="9.112521413358435"><ele>532.0</ele><time>2026-05-01T06:27:47.001Z</time></trkpt><trkpt lat="40.64571756905578" lon="9.112538921941223"><ele>532.0</ele><time>2026-05-01T06:27:48.001Z</time></trkpt><trkpt lat="40.64585691920634" lon="9.112554833248772"><ele>532.0</ele><time>2026-05-01T06:27:49.001Z</time></trkpt><trkpt lat="40.645996657532265" lon="9.11257339397362"><ele>532.0</ele><time>2026-05-01T06:27:50.001Z</time></trkpt><trkpt lat="40.646149394285274" lon="9.112550489084478"><ele>532.0</ele><time>2026-05-01T06:27:51.001Z</time></trkpt><trkpt lat="40.64629138976614" lon="9.112525873189899"><ele>532.6666666666667</ele><time>2026-05-01T06:27:52.001Z</time></trkpt><trkpt lat="40.64644461591738" lon="9.11249825656022"><ele>533.3333333333334</ele><time>2026-05-01T06:27:53.001Z</time></trkpt><trkpt lat="40.64659553746165" lon="9.112475260264134"><ele>534.0</ele><time>2026-05-01T06:27:54.001Z</time></trkpt><trkpt lat="40.64674575038361" lon="9.11245724194067"><ele>534.0</ele><time>2026-05-01T06:27:55.001Z</time></trkpt><trkpt lat="40.64690421498808" lon="9.112433576702237"><ele>534.0</ele><time>2026-05-01T06:27:56.001Z</time></trkpt><trkpt lat="40.64705620405223" lon="9.112408513086713"><ele>534.0</ele><time>2026-05-01T06:27:57.001Z</time></trkpt><trkpt lat="40.647206739678595" lon="9.112389902101835"><ele>536.0</ele><time>2026-05-01T06:27:58.001Z</time></trkpt><trkpt lat="40.64734449857982" lon="9.112376855874505"><ele>538.0</ele><time>2026-05-01T06:27:59.001Z</time></trkpt><trkpt lat="40.64747557227031" lon="9.112363645106809"><ele>540.0</ele><time>2026-05-01T06:28:00.001Z</time></trkpt><trkpt lat="40.64760169449483" lon="9.112355907696639"><ele>542.0</ele><time>2026-05-01T06:28:01.001Z</time></trkpt><trkpt lat="40.64772885713829" lon="9.112349690837203"><ele>538.5</ele><time>2026-05-01T06:28:02.001Z</time></trkpt><trkpt lat="40.6478572396157" lon="9.112342237503702"><ele>535.0</ele><time>2026-05-01T06:28:03.001Z</time></trkpt><trkpt lat="40.64798218075983" lon="9.11233458279753"><ele>531.5</ele><time>2026-05-01T06:28:04.001Z</time></trkpt><trkpt lat="40.648122089707314" lon="9.112334299988195"><ele>528.0</ele><time>2026-05-01T06:28:05.001Z</time></trkpt><trkpt lat="40.64825960432777" lon="9.112333006654247"><ele>528.0</ele><time>2026-05-01T06:28:06.001Z</time></trkpt><trkpt lat="40.64840075356796" lon="9.112331011636263"><ele>528.0</ele><time>2026-05-01T06:28:07.001Z</time></trkpt><trkpt lat="40.64853642452705" lon="9.11232581530778"><ele>528.0</ele><time>2026-05-01T06:28:08.001Z</time></trkpt><trkpt lat="40.64869067397416" lon="9.1123306234771"><ele>528.0</ele><time>2026-05-01T06:28:09.001Z</time></trkpt><trkpt lat="40.648833601985444" lon="9.112333434158236"><ele>524.75</ele><time>2026-05-01T06:28:10.001Z</time></trkpt><trkpt lat="40.6489755784639" lon="9.112334204908755"><ele>521.5</ele><time>2026-05-01T06:28:11.001Z</time></trkpt><trkpt lat="40.649107433797305" lon="9.112341045359202"><ele>518.25</ele><time>2026-05-01T06:28:12.001Z</time></trkpt><trkpt lat="40.64924739510837" lon="9.112355458672033"><ele>515.0</ele><time>2026-05-01T06:28:13.001Z</time></trkpt><trkpt lat="40.649381079279834" lon="9.112380249284925"><ele>515.75</ele><time>2026-05-01T06:28:14.001Z</time></trkpt><trkpt lat="40.64951264443383" lon="9.11242062666463"><ele>516.5</ele><time>2026-05-01T06:28:15.001Z</time></trkpt><trkpt lat="40.64965513504141" lon="9.112469510191437"><ele>517.25</ele><time>2026-05-01T06:28:16.001Z</time></trkpt><trkpt lat="40.64979802951044" lon="9.112535512110613"><ele>518.0</ele><time>2026-05-01T06:28:17.001Z</time></trkpt><trkpt lat="40.64994721063657" lon="9.112611107928565"><ele>518.0</ele><time>2026-05-01T06:28:18.001Z</time></trkpt><trkpt lat="40.65009339385412" lon="9.112687399331985"><ele>518.0</ele><time>2026-05-01T06:28:19.001Z</time></trkpt><trkpt lat="40.6502419417999" lon="9.11276667219815"><ele>518.0</ele><time>2026-05-01T06:28:20.001Z</time></trkpt><trkpt lat="40.65038605202894" lon="9.112840336340511"><ele>514.75</ele><time>2026-05-01T06:28:21.001Z</time></trkpt><trkpt lat="40.65052566299182" lon="9.112913735348"><ele>511.5</ele><time>2026-05-01T06:28:22.001Z</time></trkpt><trkpt lat="40.65066625313306" lon="9.112982376881961"><ele>508.25</ele><time>2026-05-01T06:28:23.001Z</time></trkpt><trkpt lat="40.65080626594409" lon="9.113038434392395"><ele>505.0</ele><time>2026-05-01T06:28:24.001Z</time></trkpt><trkpt lat="40.6509435321064" lon="9.113080572215376"><ele>505.0</ele><time>2026-05-01T06:28:25.001Z</time></trkpt><trkpt lat="40.65107728272714" lon="9.113103769960707"><ele>505.0</ele><time>2026-05-01T06:28:26.001Z</time></trkpt><trkpt lat="40.65120378692877" lon="9.11309960450623"><ele>505.0</ele><time>2026-05-01T06:28:27.001Z</time></trkpt><trkpt lat="40.65132115295191" lon="9.113068113897937"><ele>505.0</ele><time>2026-05-01T06:28:28.001Z</time></trkpt><trkpt lat="40.65143882184846" lon="9.113010732743899"><ele>505.25</ele><time>2026-05-01T06:28:29.001Z</time></trkpt><trkpt lat="40.65154503672381" lon="9.11292843101481"><ele>505.5</ele><time>2026-05-01T06:28:30.001Z</time></trkpt><trkpt lat="40.65165865635483" lon="9.112830787600657"><ele>505.75</ele><time>2026-05-01T06:28:31.001Z</time></trkpt><trkpt lat="40.651768379694786" lon="9.112722467835468"><ele>506.0</ele><time>2026-05-01T06:28:32.001Z</time></trkpt><trkpt lat="40.65187711932545" lon="9.112614306166986"><ele>507.25</ele><time>2026-05-01T06:28:33.001Z</time></trkpt><trkpt lat="40.65199662268514" lon="9.11252295698348"><ele>508.5</ele><time>2026-05-01T06:28:34.001Z</time></trkpt><trkpt lat="40.6521175354412" lon="9.112448130387682"><ele>509.75</ele><time>2026-05-01T06:28:35.001Z</time></trkpt><trkpt lat="40.65224078474082" lon="9.11237975660091"><ele>511.0</ele><time>2026-05-01T06:28:36.001Z</time></trkpt><trkpt lat="40.6523570026297" lon="9.112322039697107"><ele>505.0</ele><time>2026-05-01T06:28:37.001Z</time></trkpt><trkpt lat="40.65247455043816" lon="9.112277743048821"><ele>499.0</ele><time>2026-05-01T06:28:38.001Z</time></trkpt><trkpt lat="40.652589898273845" lon="9.112251246661303"><ele>493.0</ele><time>2026-05-01T06:28:39.001Z</time></trkpt><trkpt lat="40.6527211565343" lon="9.112236631559922"><ele>487.0</ele><time>2026-05-01T06:28:40.001Z</time></trkpt><trkpt lat="40.65284851615195" lon="9.112244626464635"><ele>484.25</ele><time>2026-05-01T06:28:41.001Z</time></trkpt><trkpt lat="40.652977344741224" lon="9.112263037852657"><ele>481.5</ele><time>2026-05-01T06:28:42.001Z</time></trkpt><trkpt lat="40.6530991093267" lon="9.112292115889074"><ele>478.75</ele><time>2026-05-01T06:28:43.001Z</time></trkpt><trkpt lat="40.653220938617274" lon="9.112333562401322"><ele>476.0</ele><time>2026-05-01T06:28:44.001Z</time></trkpt><trkpt lat="40.65335348670371" lon="9.11239118633814"><ele>475.0</ele><time>2026-05-01T06:28:45.001Z</time></trkpt><trkpt lat="40.6534747721414" lon="9.112469967293027"><ele>474.0</ele><time>2026-05-01T06:28:46.001Z</time></trkpt><trkpt lat="40.65358720631028" lon="9.112564741630399"><ele>473.0</ele><time>2026-05-01T06:28:47.001Z</time></trkpt><trkpt lat="40.65370733686654" lon="9.112677820096058"><ele>472.0</ele><time>2026-05-01T06:28:48.001Z</time></trkpt><trkpt lat="40.65382871081474" lon="9.112800947785349"><ele>472.0</ele><time>2026-05-01T06:28:49.001Z</time></trkpt><trkpt lat="40.65394364055469" lon="9.112926769846847"><ele>472.0</ele><time>2026-05-01T06:28:50.001Z</time></trkpt><trkpt lat="40.654048324917596" lon="9.113046289907516"><ele>472.0</ele><time>2026-05-01T06:28:51.001Z</time></trkpt><trkpt lat="40.65414344477532" lon="9.113164609630438"><ele>472.0</ele><time>2026-05-01T06:28:52.001Z</time></trkpt><trkpt lat="40.65423705846979" lon="9.113280897173086"><ele>475.75</ele><time>2026-05-01T06:28:53Z</time></trkpt><trkpt lat="40.65430865969535" lon="9.113398363968207"><ele>479.5</ele><time>2026-05-01T06:28:54Z</time></trkpt><trkpt lat="40.65437654385691" lon="9.113534325222343"><ele>483.25</ele><time>2026-05-01T06:28:55Z</time></trkpt><trkpt lat="40.65441277275053" lon="9.113690324520023"><ele>487.0</ele><time>2026-05-01T06:28:56Z</time></trkpt><trkpt lat="40.65445494061537" lon="9.113855947022275"><ele>481.0</ele><time>2026-05-01T06:28:57Z</time></trkpt><trkpt lat="40.65449118207845" lon="9.114033413003549"><ele>475.0</ele><time>2026-05-01T06:28:58Z</time></trkpt><trkpt lat="40.65453587330964" lon="9.114222315832123"><ele>469.0</ele><time>2026-05-01T06:28:59Z</time></trkpt><trkpt lat="40.65457473380571" lon="9.114404887242872"><ele>463.0</ele><time>2026-05-01T06:29:00Z</time></trkpt><trkpt lat="40.654616325085904" lon="9.114584872163386"><ele>463.0</ele><time>2026-05-01T06:29:01Z</time></trkpt><trkpt lat="40.654661099331015" lon="9.114764343038786"><ele>463.0</ele><time>2026-05-01T06:29:02Z</time></trkpt><trkpt lat="40.65470433388727" lon="9.114938600807205"><ele>463.0</ele><time>2026-05-01T06:29:03Z</time></trkpt><trkpt lat="40.65475673144498" lon="9.115107697359974"><ele>463.0</ele><time>2026-05-01T06:29:04Z</time></trkpt><trkpt lat="40.65481819407945" lon="9.115274357658928"><ele>463.25</ele><time>2026-05-01T06:29:05Z</time></trkpt><trkpt lat="40.6548921606113" lon="9.115442835221899"><ele>463.5</ele><time>2026-05-01T06:29:06Z</time></trkpt><trkpt lat="40.65497888978334" lon="9.11560477777248"><ele>463.75</ele><time>2026-05-01T06:29:07Z</time></trkpt><trkpt lat="40.65506282512052" lon="9.115763719811959"><ele>464.0</ele><time>2026-05-01T06:29:08Z</time></trkpt><trkpt lat="40.655149877673054" lon="9.115917926856598"><ele>465.5</ele><time>2026-05-01T06:29:09Z</time></trkpt><trkpt lat="40.65524426233028" lon="9.116061948131563"><ele>467.0</ele><time>2026-05-01T06:29:10Z</time></trkpt><trkpt lat="40.65533932424282" lon="9.11618756417383"><ele>468.5</ele><time>2026-05-01T06:29:11Z</time></trkpt><trkpt lat="40.655442651465535" lon="9.116311405494402"><ele>470.0</ele><time>2026-05-01T06:29:12Z</time></trkpt><trkpt lat="40.65554859626724" lon="9.116406121921809"><ele>466.2</ele><time>2026-05-01T06:29:13Z</time></trkpt><trkpt lat="40.65565200090084" lon="9.116461839313759"><ele>462.4</ele><time>2026-05-01T06:29:14Z</time></trkpt><trkpt lat="40.655756696185556" lon="9.116498075508932"><ele>458.6</ele><time>2026-05-01T06:29:15Z</time></trkpt><trkpt lat="40.65586857640017" lon="9.116504793252172"><ele>454.8</ele><time>2026-05-01T06:29:16Z</time></trkpt><trkpt lat="40.65598421803629" lon="9.116484207724618"><ele>451.0</ele><time>2026-05-01T06:29:17Z</time></trkpt><trkpt lat="40.65610093916019" lon="9.116447416690823"><ele>449.5</ele><time>2026-05-01T06:29:18Z</time></trkpt><trkpt lat="40.65622873873638" lon="9.11640121273411"><ele>448.0</ele><time>2026-05-01T06:29:19Z</time></trkpt><trkpt lat="40.656351712699085" lon="9.116364722093678"><ele>446.5</ele><time>2026-05-01T06:29:20Z</time></trkpt><trkpt lat="40.6564569023244" lon="9.116340975593596"><ele>445.0</ele><time>2026-05-01T06:29:21Z</time></trkpt><trkpt lat="40.65656418726956" lon="9.11633587636815"><ele>445.0</ele><time>2026-05-01T06:29:22Z</time></trkpt><trkpt lat="40.65665911074159" lon="9.116365742770753"><ele>445.0</ele><time>2026-05-01T06:29:23Z</time></trkpt><trkpt lat="40.65674296265994" lon="9.116422739418029"><ele>445.0</ele><time>2026-05-01T06:29:24Z</time></trkpt><trkpt lat="40.65681250167982" lon="9.116502718628734"><ele>445.0</ele><time>2026-05-01T06:29:25Z</time></trkpt><trkpt lat="40.656849388096575" lon="9.116626681221689"><ele>445.0</ele><time>2026-05-01T06:29:26Z</time></trkpt><trkpt lat="40.65686187242425" lon="9.116767578682715"><ele>443.4</ele><time>2026-05-01T06:29:27Z</time></trkpt><trkpt lat="40.65689596204081" lon="9.11691525876351"><ele>441.8</ele><time>2026-05-01T06:29:28Z</time></trkpt><trkpt lat="40.65691968609061" lon="9.11706422266681"><ele>440.20000000000005</ele><time>2026-05-01T06:29:29Z</time></trkpt><trkpt lat="40.65694181464849" lon="9.117195481221636"><ele>438.6</ele><time>2026-05-01T06:29:30Z</time></trkpt><trkpt lat="40.65698315726062" lon="9.117310760964221"><ele>437.0</ele><time>2026-05-01T06:29:31Z</time></trkpt><trkpt lat="40.657046456127674" lon="9.117394963072593"><ele>437.0</ele><time>2026-05-01T06:29:32Z</time></trkpt><trkpt lat="40.65713236418306" lon="9.117450170988679"><ele>437.00000000000006</ele><time>2026-05-01T06:29:33Z</time></trkpt><trkpt lat="40.657232404311294" lon="9.117468827466915"><ele>437.00000000000006</ele><time>2026-05-01T06:29:34Z</time></trkpt><trkpt lat="40.65732628942503" lon="9.117458989266654"><ele>437.0</ele><time>2026-05-01T06:29:35Z</time></trkpt><trkpt lat="40.65740866140266" lon="9.117414582025182"><ele>437.0</ele><time>2026-05-01T06:29:36Z</time></trkpt><trkpt lat="40.6574993527429" lon="9.117347848270837"><ele>437.0</ele><time>2026-05-01T06:29:37Z</time></trkpt><trkpt lat="40.65758749469889" lon="9.117254178093994"><ele>437.0</ele><time>2026-05-01T06:29:38Z</time></trkpt><trkpt lat="40.657674559069996" lon="9.117149384121092"><ele>437.0</ele><time>2026-05-01T06:29:39Z</time></trkpt><trkpt lat="40.65775104927559" lon="9.117033820282087"><ele>437.0</ele><time>2026-05-01T06:29:40Z</time></trkpt><trkpt lat="40.65781801133259" lon="9.11689558956807"><ele>438.0</ele><time>2026-05-01T06:29:41Z</time></trkpt><trkpt lat="40.657880327036956" lon="9.116740854619877"><ele>439.0</ele><time>2026-05-01T06:29:42Z</time></trkpt><trkpt lat="40.65794038747016" lon="9.116580382412945"><ele>440.0</ele><time>2026-05-01T06:29:43Z</time></trkpt><trkpt lat="40.65799693833073" lon="9.116419287152647"><ele>441.0</ele><time>2026-05-01T06:29:44Z</time></trkpt><trkpt lat="40.6580548876065" lon="9.116244414719871"><ele>438.75</ele><time>2026-05-01T06:29:45Z</time></trkpt><trkpt lat="40.65811460952486" lon="9.116068132943138"><ele>436.5</ele><time>2026-05-01T06:29:46Z</time></trkpt><trkpt lat="40.658171490494404" lon="9.11590359846658"><ele>434.25</ele><time>2026-05-01T06:29:47Z</time></trkpt><trkpt lat="40.65822904904115" lon="9.11573610056177"><ele>432.0</ele><time>2026-05-01T06:29:48Z</time></trkpt><trkpt lat="40.658286174090065" lon="9.115583935211074"><ele>429.20000000000005</ele><time>2026-05-01T06:29:49Z</time></trkpt><trkpt lat="40.65834867035737" lon="9.115452742487337"><ele>426.40000000000003</ele><time>2026-05-01T06:29:50Z</time></trkpt><trkpt lat="40.658418172191936" lon="9.115332878351454"><ele>423.6</ele><time>2026-05-01T06:29:51Z</time></trkpt><trkpt lat="40.65849887662913" lon="9.115260392407011"><ele>420.79999999999995</ele><time>2026-05-01T06:29:52Z</time></trkpt><trkpt lat="40.65858660219049" lon="9.115207749275505"><ele>418.0</ele><time>2026-05-01T06:29:53Z</time></trkpt><trkpt lat="40.65867458281156" lon="9.115204349888947"><ele>417.2</ele><time>2026-05-01T06:29:54Z</time></trkpt><trkpt lat="40.65876379105304" lon="9.115220506027592"><ele>416.4</ele><time>2026-05-01T06:29:55Z</time></trkpt><trkpt lat="40.65884378613205" lon="9.115282556809952"><ele>415.59999999999997</ele><time>2026-05-01T06:29:56Z</time></trkpt><trkpt lat="40.658935034089474" lon="9.115359620076635"><ele>414.79999999999995</ele><time>2026-05-01T06:29:57Z</time></trkpt><trkpt lat="40.659040277418775" lon="9.115443607206256"><ele>414.0</ele><time>2026-05-01T06:29:58Z</time></trkpt><trkpt lat="40.659148935424895" lon="9.115538407607813"><ele>414.0</ele><time>2026-05-01T06:29:59Z</time></trkpt><trkpt lat="40.659264626533826" lon="9.115628819501943"><ele>414.0</ele><time>2026-05-01T06:30:00Z</time></trkpt><trkpt lat="40.659383212896614" lon="9.115730105956402"><ele>414.0</ele><time>2026-05-01T06:30:01Z</time></trkpt><trkpt lat="40.65950329448245" lon="9.115824701284534"><ele>414.0</ele><time>2026-05-01T06:30:02Z</time></trkpt><trkpt lat="40.65962442629444" lon="9.115924886434723"><ele>413.5</ele><time>2026-05-01T06:30:03Z</time></trkpt><trkpt lat="40.659742410069676" lon="9.116024054601548"><ele>413.0</ele><time>2026-05-01T06:30:04Z</time></trkpt><trkpt lat="40.65986438353087" lon="9.11611588314213"><ele>412.5</ele><time>2026-05-01T06:30:05Z</time></trkpt><trkpt lat="40.65998472028412" lon="9.116210226109985"><ele>412.0</ele><time>2026-05-01T06:30:06Z</time></trkpt><trkpt lat="40.660111064453005" lon="9.116300108205813"><ele>412.0</ele><time>2026-05-01T06:30:07Z</time></trkpt><trkpt lat="40.66024371845845" lon="9.116378406789636"><ele>412.0</ele><time>2026-05-01T06:30:08Z</time></trkpt><trkpt lat="40.66037280436431" lon="9.116435838078246"><ele>412.0</ele><time>2026-05-01T06:30:09Z</time></trkpt><trkpt lat="40.66049567649066" lon="9.116497673518403"><ele>412.0</ele><time>2026-05-01T06:30:10Z</time></trkpt><trkpt lat="40.66062944882897" lon="9.116491417499148"><ele>408.75</ele><time>2026-05-01T06:30:11Z</time></trkpt><trkpt lat="40.66076131914634" lon="9.11649401072728"><ele>405.5</ele><time>2026-05-01T06:30:12Z</time></trkpt><trkpt lat="40.66088512440108" lon="9.116493384410242"><ele>402.25</ele><time>2026-05-01T06:30:13Z</time></trkpt><trkpt lat="40.6610010355015" lon="9.116502333102162"><ele>399.0</ele><time>2026-05-01T06:30:14Z</time></trkpt><trkpt lat="40.66111937445665" lon="9.116537971112766"><ele>399.2</ele><time>2026-05-01T06:30:15Z</time></trkpt><trkpt lat="40.66123838019489" lon="9.116595844158455"><ele>399.4</ele><time>2026-05-01T06:30:16Z</time></trkpt><trkpt lat="40.66134659514066" lon="9.11665165530731"><ele>399.6</ele><time>2026-05-01T06:30:17Z</time></trkpt><trkpt lat="40.661442613632246" lon="9.116692495279827"><ele>399.8</ele><time>2026-05-01T06:30:18Z</time></trkpt><trkpt lat="40.661534575157205" lon="9.116706230153138"><ele>400.0</ele><time>2026-05-01T06:30:19Z</time></trkpt><trkpt lat="40.66162121845919" lon="9.116692053040682"><ele>400.0</ele><time>2026-05-01T06:30:20Z</time></trkpt><trkpt lat="40.66170202424292" lon="9.11664520862863"><ele>400.0</ele><time>2026-05-01T06:30:21Z</time></trkpt><trkpt lat="40.66179053456074" lon="9.11658823228867"><ele>400.0</ele><time>2026-05-01T06:30:22Z</time></trkpt><trkpt lat="40.661846447665624" lon="9.116472286473488"><ele>400.0</ele><time>2026-05-01T06:30:23Z</time></trkpt><trkpt lat="40.66188877175075" lon="9.11636789817946"><ele>400.0</ele><time>2026-05-01T06:30:24Z</time></trkpt><trkpt lat="40.66194457200579" lon="9.11625649947234"><ele>396.4</ele><time>2026-05-01T06:30:25Z</time></trkpt><trkpt lat="40.66199066461863" lon="9.116113915219204"><ele>392.8</ele><time>2026-05-01T06:30:26Z</time></trkpt><trkpt lat="40.662027099004774" lon="9.115997631374523"><ele>389.20000000000005</ele><time>2026-05-01T06:30:27Z</time></trkpt><trkpt lat="40.662063119365406" lon="9.115883250365863"><ele>385.6</ele><time>2026-05-01T06:30:28Z</time></trkpt><trkpt lat="40.662092922860715" lon="9.115789704216343"><ele>382.0</ele><time>2026-05-01T06:30:29Z</time></trkpt><trkpt lat="40.66221075245523" lon="9.115454885264453"><ele>382.0</ele><time>2026-05-01T06:30:30Z</time></trkpt><trkpt lat="40.66226408543058" lon="9.115280154617468"><ele>382.0</ele><time>2026-05-01T06:30:31Z</time></trkpt><trkpt lat="40.662319447608176" lon="9.115095188769013"><ele>382.0</ele><time>2026-05-01T06:30:32Z</time></trkpt><trkpt lat="40.662375828561444" lon="9.114916324121713"><ele>382.0</ele><time>2026-05-01T06:30:33Z</time></trkpt><trkpt lat="40.66242917999965" lon="9.114734287897692"><ele>380.5</ele><time>2026-05-01T06:30:34Z</time></trkpt><trkpt lat="40.66248314503317" lon="9.11455672858443"><ele>379.0</ele><time>2026-05-01T06:30:35Z</time></trkpt><trkpt lat="40.662536301976814" lon="9.114373385735975"><ele>377.5</ele><time>2026-05-01T06:30:36Z</time></trkpt><trkpt lat="40.66259219610995" lon="9.114191359071455"><ele>376.0</ele><time>2026-05-01T06:30:37Z</time></trkpt><trkpt lat="40.66264655488886" lon="9.114016871160768"><ele>375.0</ele><time>2026-05-01T06:30:38Z</time></trkpt><trkpt lat="40.66270190715788" lon="9.113850191012258"><ele>374.0</ele><time>2026-05-01T06:30:39Z</time></trkpt><trkpt lat="40.66275682328751" lon="9.113690493914957"><ele>373.0</ele><time>2026-05-01T06:30:40Z</time></trkpt><trkpt lat="40.66281528048571" lon="9.113535559496466"><ele>372.0</ele><time>2026-05-01T06:30:41Z</time></trkpt><trkpt lat="40.6628815825433" lon="9.113382755955294"><ele>372.75</ele><time>2026-05-01T06:30:42Z</time></trkpt><trkpt lat="40.662958690312955" lon="9.11323193883035"><ele>373.5</ele><time>2026-05-01T06:30:43Z</time></trkpt><trkpt lat="40.66303546126045" lon="9.11307401545547"><ele>374.25</ele><time>2026-05-01T06:30:44Z</time></trkpt><trkpt lat="40.66311404596629" lon="9.112914918491267"><ele>375.0</ele><time>2026-05-01T06:30:45Z</time></trkpt><trkpt lat="40.66319630137842" lon="9.112748979207751"><ele>375.0</ele><time>2026-05-01T06:30:46Z</time></trkpt><trkpt lat="40.66327947797298" lon="9.112579952321092"><ele>375.0</ele><time>2026-05-01T06:30:47Z</time></trkpt><trkpt lat="40.66336404241865" lon="9.11240517014783"><ele>375.0</ele><time>2026-05-01T06:30:48Z</time></trkpt><trkpt lat="40.66344822053934" lon="9.112230214243166"><ele>377.0</ele><time>2026-05-01T06:30:49Z</time></trkpt><trkpt lat="40.663530740440095" lon="9.112060634697496"><ele>379.0</ele><time>2026-05-01T06:30:50Z</time></trkpt><trkpt lat="40.66360977098574" lon="9.111896831137198"><ele>381.0</ele><time>2026-05-01T06:30:51Z</time></trkpt><trkpt lat="40.66368945258978" lon="9.111752205916925"><ele>383.0</ele><time>2026-05-01T06:30:52Z</time></trkpt><trkpt lat="40.663763044571695" lon="9.111596973950574"><ele>377.75</ele><time>2026-05-01T06:30:53Z</time></trkpt><trkpt lat="40.66383616711245" lon="9.111462780550317"><ele>372.5</ele><time>2026-05-01T06:30:54Z</time></trkpt><trkpt lat="40.66391823362142" lon="9.111337084140667"><ele>367.25</ele><time>2026-05-01T06:30:55Z</time></trkpt><trkpt lat="40.664019016614105" lon="9.11121805544472"><ele>362.0</ele><time>2026-05-01T06:30:56Z</time></trkpt><trkpt lat="40.66413331929957" lon="9.111115866253689"><ele>362.0</ele><time>2026-05-01T06:30:57Z</time></trkpt><trkpt lat="40.664260886221335" lon="9.11102369356854"><ele>362.0</ele><time>2026-05-01T06:30:58Z</time></trkpt><trkpt lat="40.66438562079759" lon="9.1109402899569"><ele>362.0</ele><time>2026-05-01T06:30:59Z</time></trkpt><trkpt lat="40.66451005332394" lon="9.110868356073288"><ele>362.0</ele><time>2026-05-01T06:31:00Z</time></trkpt><trkpt lat="40.66464455484653" lon="9.11083197501262"><ele>363.25</ele><time>2026-05-01T06:31:01Z</time></trkpt><trkpt lat="40.66478471398076" lon="9.110802637269957"><ele>364.5</ele><time>2026-05-01T06:31:02Z</time></trkpt><trkpt lat="40.664919385554036" lon="9.110783025932246"><ele>365.75</ele><time>2026-05-01T06:31:03Z</time></trkpt><trkpt lat="40.66504605827724" lon="9.110770350061895"><ele>367.0</ele><time>2026-05-01T06:31:04Z</time></trkpt><trkpt lat="40.66515830442806" lon="9.110730551399412"><ele>365.0</ele><time>2026-05-01T06:31:05Z</time></trkpt><trkpt lat="40.665260341986006" lon="9.110655438952003"><ele>363.0</ele><time>2026-05-01T06:31:06.001Z</time></trkpt><trkpt lat="40.66535482157436" lon="9.11055998253268"><ele>361.0</ele><time>2026-05-01T06:31:07Z</time></trkpt><trkpt lat="40.665456695040355" lon="9.110431910788977"><ele>359.0</ele><time>2026-05-01T06:31:08Z</time></trkpt><trkpt lat="40.665550209045726" lon="9.11029043318473"><ele>359.0</ele><time>2026-05-01T06:31:09Z</time></trkpt><trkpt lat="40.66564269101952" lon="9.110166156489592"><ele>359.0</ele><time>2026-05-01T06:31:10Z</time></trkpt><trkpt lat="40.66574037905246" lon="9.110044933525463"><ele>359.0</ele><time>2026-05-01T06:31:11Z</time></trkpt><trkpt lat="40.66584737118683" lon="9.10994001550095"><ele>359.0</ele><time>2026-05-01T06:31:12Z</time></trkpt><trkpt lat="40.66595288212606" lon="9.109845383426705"><ele>359.75</ele><time>2026-05-01T06:31:13Z</time></trkpt><trkpt lat="40.66604662680382" lon="9.109738287051357"><ele>360.5</ele><time>2026-05-01T06:31:14Z</time></trkpt><trkpt lat="40.666127805907394" lon="9.10963507551952"><ele>361.25</ele><time>2026-05-01T06:31:15Z</time></trkpt><trkpt lat="40.666206547788185" lon="9.10951728319982"><ele>362.0</ele><time>2026-05-01T06:31:16Z</time></trkpt><trkpt lat="40.66625094578415" lon="9.109376192308531"><ele>362.0</ele><time>2026-05-01T06:31:17Z</time></trkpt><trkpt lat="40.66628950117036" lon="9.109228479048753"><ele>362.0</ele><time>2026-05-01T06:31:18Z</time></trkpt><trkpt lat="40.6663136985164" lon="9.10905328419272"><ele>362.0</ele><time>2026-05-01T06:31:19Z</time></trkpt><trkpt lat="40.66633308150385" lon="9.108893746570823"><ele>362.0</ele><time>2026-05-01T06:31:20Z</time></trkpt><trkpt lat="40.66635315177114" lon="9.108757589380172"><ele>359.40000000000003</ele><time>2026-05-01T06:31:21Z</time></trkpt><trkpt lat="40.66637218258612" lon="9.108636428147278"><ele>356.8</ele><time>2026-05-01T06:31:22Z</time></trkpt><trkpt lat="40.66640737297612" lon="9.108528413126686"><ele>354.2</ele><time>2026-05-01T06:31:23Z</time></trkpt><trkpt lat="40.666460597931035" lon="9.108428929324855"><ele>351.6</ele><time>2026-05-01T06:31:24Z</time></trkpt><trkpt lat="40.66653271705859" lon="9.108338683939888"><ele>349.0</ele><time>2026-05-01T06:31:25Z</time></trkpt><trkpt lat="40.6666219257414" lon="9.108269356331194"><ele>349.75</ele><time>2026-05-01T06:31:26Z</time></trkpt><trkpt lat="40.66673650479414" lon="9.10821258948916"><ele>350.5</ele><time>2026-05-01T06:31:27Z</time></trkpt><trkpt lat="40.66684076155251" lon="9.108131525492546"><ele>351.25</ele><time>2026-05-01T06:31:28Z</time></trkpt><trkpt lat="40.66693921962389" lon="9.108028717547482"><ele>352.0</ele><time>2026-05-01T06:31:29Z</time></trkpt><trkpt lat="40.66703919669688" lon="9.107904443163678"><ele>352.0</ele><time>2026-05-01T06:31:30Z</time></trkpt><trkpt lat="40.6671291441259" lon="9.10776397113218"><ele>352.0</ele><time>2026-05-01T06:31:31Z</time></trkpt><trkpt lat="40.6672166179514" lon="9.107612188813208"><ele>352.0</ele><time>2026-05-01T06:31:32Z</time></trkpt><trkpt lat="40.66729952628749" lon="9.107454908977928"><ele>352.0</ele><time>2026-05-01T06:31:33Z</time></trkpt><trkpt lat="40.66738500989435" lon="9.10729581595078"><ele>348.0</ele><time>2026-05-01T06:31:34Z</time></trkpt><trkpt lat="40.66747196017567" lon="9.107145103375604"><ele>344.0</ele><time>2026-05-01T06:31:35Z</time></trkpt><trkpt lat="40.667561591391426" lon="9.106989258278135"><ele>340.0</ele><time>2026-05-01T06:31:36Z</time></trkpt><trkpt lat="40.66765016416927" lon="9.106836118553499"><ele>336.0</ele><time>2026-05-01T06:31:37Z</time></trkpt><trkpt lat="40.66773831927051" lon="9.106680968446621"><ele>336.0</ele><time>2026-05-01T06:31:38Z</time></trkpt><trkpt lat="40.6678286310181" lon="9.106519019372085"><ele>336.0</ele><time>2026-05-01T06:31:39Z</time></trkpt><trkpt lat="40.66791644473876" lon="9.106363464592437"><ele>336.0</ele><time>2026-05-01T06:31:40Z</time></trkpt><trkpt lat="40.66800278663074" lon="9.106220906941752"><ele>336.0</ele><time>2026-05-01T06:31:41Z</time></trkpt><trkpt lat="40.668091662544164" lon="9.106095386599138"><ele>336.0</ele><time>2026-05-01T06:31:42Z</time></trkpt><trkpt lat="40.66818566590288" lon="9.105988202497425"><ele>336.0</ele><time>2026-05-01T06:31:43Z</time></trkpt><trkpt lat="40.66826356447062" lon="9.105899067419006"><ele>336.0</ele><time>2026-05-01T06:31:44Z</time></trkpt><trkpt lat="40.66836112872215" lon="9.105816256394892"><ele>336.0</ele><time>2026-05-01T06:31:45Z</time></trkpt><trkpt lat="40.668473291419645" lon="9.105766018192002"><ele>332.5</ele><time>2026-05-01T06:31:46Z</time></trkpt><trkpt lat="40.668598715163114" lon="9.105728540554601"><ele>329.0</ele><time>2026-05-01T06:31:47Z</time></trkpt><trkpt lat="40.66872992417281" lon="9.105693416045035"><ele>325.5</ele><time>2026-05-01T06:31:48Z</time></trkpt><trkpt lat="40.668866655697244" lon="9.10567261159149"><ele>322.0</ele><time>2026-05-01T06:31:49Z</time></trkpt><trkpt lat="40.669012528069274" lon="9.105646193352381"><ele>321.5</ele><time>2026-05-01T06:31:50Z</time></trkpt><trkpt lat="40.66915463588376" lon="9.105622998780765"><ele>321.0</ele><time>2026-05-01T06:31:51Z</time></trkpt><trkpt lat="40.6692974307213" lon="9.105594179119047"><ele>320.5</ele><time>2026-05-01T06:31:52Z</time></trkpt><trkpt lat="40.66943623263578" lon="9.105551595935259"><ele>320.0</ele><time>2026-05-01T06:31:53Z</time></trkpt><trkpt lat="40.66956884365955" lon="9.105498401795934"><ele>321.5</ele><time>2026-05-01T06:31:54Z</time></trkpt><trkpt lat="40.66968858213586" lon="9.105421924200291"><ele>323.0</ele><time>2026-05-01T06:31:55Z</time></trkpt><trkpt lat="40.66980704885638" lon="9.10533647503212"><ele>324.5</ele><time>2026-05-01T06:31:56Z</time></trkpt><trkpt lat="40.669926200534334" lon="9.105229761515915"><ele>326.0</ele><time>2026-05-01T06:31:57Z</time></trkpt><trkpt lat="40.67004698004973" lon="9.105125631536815"><ele>326.0</ele><time>2026-05-01T06:31:58Z</time></trkpt><trkpt lat="40.670167877509876" lon="9.105010615729384"><ele>326.0</ele><time>2026-05-01T06:31:59Z</time></trkpt><trkpt lat="40.67028301818076" lon="9.104916746632895"><ele>326.0</ele><time>2026-05-01T06:32:00Z</time></trkpt><trkpt lat="40.67039477158925" lon="9.10483328725421"><ele>326.0</ele><time>2026-05-01T06:32:01Z</time></trkpt><trkpt lat="40.67050690294371" lon="9.104764171094189"><ele>323.25</ele><time>2026-05-01T06:32:02Z</time></trkpt><trkpt lat="40.67062450503235" lon="9.104722903060166"><ele>320.5</ele><time>2026-05-01T06:32:03Z</time></trkpt><trkpt lat="40.67074537165733" lon="9.10470046132676"><ele>317.75</ele><time>2026-05-01T06:32:04Z</time></trkpt><trkpt lat="40.67087284414318" lon="9.104695106247172"><ele>315.0</ele><time>2026-05-01T06:32:05Z</time></trkpt><trkpt lat="40.671011117155565" lon="9.104693129103836"><ele>314.5</ele><time>2026-05-01T06:32:06Z</time></trkpt><trkpt lat="40.67115243879877" lon="9.104702823232156"><ele>314.0</ele><time>2026-05-01T06:32:07Z</time></trkpt><trkpt lat="40.67129644927423" lon="9.104708394156763"><ele>313.5</ele><time>2026-05-01T06:32:08Z</time></trkpt><trkpt lat="40.67144500325246" lon="9.104709746729409"><ele>313.0</ele><time>2026-05-01T06:32:09Z</time></trkpt><trkpt lat="40.67158856615506" lon="9.10469931928561"><ele>313.0</ele><time>2026-05-01T06:32:10Z</time></trkpt><trkpt lat="40.67173272879169" lon="9.10466850451023"><ele>313.0</ele><time>2026-05-01T06:32:11Z</time></trkpt><trkpt lat="40.671868721208675" lon="9.104630167294433"><ele>313.0</ele><time>2026-05-01T06:32:12Z</time></trkpt><trkpt lat="40.67200832982576" lon="9.104566462670352"><ele>313.0</ele><time>2026-05-01T06:32:13Z</time></trkpt><trkpt lat="40.67214292404072" lon="9.104486183952673"><ele>312.75</ele><time>2026-05-01T06:32:14Z</time></trkpt><trkpt lat="40.67226400828734" lon="9.104394570728337"><ele>312.5</ele><time>2026-05-01T06:32:15Z</time></trkpt><trkpt lat="40.672380266220635" lon="9.104283325912556"><ele>312.25</ele><time>2026-05-01T06:32:16Z</time></trkpt><trkpt lat="40.67248088566498" lon="9.104148001828287"><ele>312.0</ele><time>2026-05-01T06:32:17Z</time></trkpt><trkpt lat="40.672570402588505" lon="9.103999672975206"><ele>309.3333333333333</ele><time>2026-05-01T06:32:18Z</time></trkpt><trkpt lat="40.672665990206404" lon="9.103847851354736"><ele>306.66666666666663</ele><time>2026-05-01T06:32:19Z</time></trkpt><trkpt lat="40.67275901661708" lon="9.103684446780594"><ele>304.0</ele><time>2026-05-01T06:32:20Z</time></trkpt><trkpt lat="40.67285643747829" lon="9.103520204098963"><ele>303.66666666666663</ele><time>2026-05-01T06:32:21Z</time></trkpt><trkpt lat="40.67295661843248" lon="9.103356463955045"><ele>303.3333333333333</ele><time>2026-05-01T06:32:22Z</time></trkpt><trkpt lat="40.67305420991828" lon="9.103194941958119"><ele>303.0</ele><time>2026-05-01T06:32:23Z</time></trkpt><trkpt lat="40.67315621208521" lon="9.103023479165797"><ele>302.3333333333333</ele><time>2026-05-01T06:32:24Z</time></trkpt><trkpt lat="40.673253875527095" lon="9.102864808650525"><ele>301.66666666666663</ele><time>2026-05-01T06:32:25Z</time></trkpt><trkpt lat="40.67334370329149" lon="9.102707909720687"><ele>301.0</ele><time>2026-05-01T06:32:26Z</time></trkpt><trkpt lat="40.67343802837455" lon="9.102552306507699"><ele>300.0</ele><time>2026-05-01T06:32:27Z</time></trkpt><trkpt lat="40.67353281299613" lon="9.102388031705633"><ele>299.0</ele><time>2026-05-01T06:32:28Z</time></trkpt><trkpt lat="40.673630456581364" lon="9.102231183302447"><ele>298.0</ele><time>2026-05-01T06:32:29Z</time></trkpt><trkpt lat="40.67372852146783" lon="9.102070053115783"><ele>296.66666666666663</ele><time>2026-05-01T06:32:30Z</time></trkpt><trkpt lat="40.67382698398141" lon="9.101912125643414"><ele>295.3333333333333</ele><time>2026-05-01T06:32:31Z</time></trkpt><trkpt lat="40.67392788545529" lon="9.101751536777211"><ele>294.0</ele><time>2026-05-01T06:32:32Z</time></trkpt><trkpt lat="40.674027320643674" lon="9.101587265728924"><ele>294.6666666666667</ele><time>2026-05-01T06:32:33Z</time></trkpt><trkpt lat="40.67412281063068" lon="9.101422935791115"><ele>295.33333333333337</ele><time>2026-05-01T06:32:34Z</time></trkpt><trkpt lat="40.67421815602697" lon="9.101268596209671"><ele>296.0</ele><time>2026-05-01T06:32:35Z</time></trkpt><trkpt lat="40.67432421059272" lon="9.101090215816686"><ele>296.0</ele><time>2026-05-01T06:32:36Z</time></trkpt><trkpt lat="40.67442828055865" lon="9.10090887798017"><ele>296.0</ele><time>2026-05-01T06:32:37Z</time></trkpt><trkpt lat="40.67452617313321" lon="9.100749823789439"><ele>296.0</ele><time>2026-05-01T06:32:38Z</time></trkpt><trkpt lat="40.67462301940672" lon="9.100604953152763"><ele>295.0</ele><time>2026-05-01T06:32:39Z</time></trkpt><trkpt lat="40.67471994139013" lon="9.100448409880777"><ele>294.0</ele><time>2026-05-01T06:32:40Z</time></trkpt><trkpt lat="40.67481730839839" lon="9.100287888668424"><ele>293.0</ele><time>2026-05-01T06:32:41Z</time></trkpt><trkpt lat="40.674917619441786" lon="9.100139149421247"><ele>293.0</ele><time>2026-05-01T06:32:42Z</time></trkpt><trkpt lat="40.67501829279187" lon="9.099988086789917"><ele>293.0</ele><time>2026-05-01T06:32:43Z</time></trkpt><trkpt lat="40.67512463792444" lon="9.099850642928097"><ele>293.0</ele><time>2026-05-01T06:32:44Z</time></trkpt><trkpt lat="40.67523459030489" lon="9.099710541890156"><ele>291.0</ele><time>2026-05-01T06:32:45Z</time></trkpt><trkpt lat="40.67535023876164" lon="9.099567352185113"><ele>289.0</ele><time>2026-05-01T06:32:46Z</time></trkpt><trkpt lat="40.67547006545874" lon="9.09943203056534"><ele>287.0</ele><time>2026-05-01T06:32:47Z</time></trkpt><trkpt lat="40.67559138475603" lon="9.09929454616772"><ele>287.0</ele><time>2026-05-01T06:32:48Z</time></trkpt><trkpt lat="40.675719882908304" lon="9.099167535522062"><ele>287.0</ele><time>2026-05-01T06:32:49Z</time></trkpt><trkpt lat="40.67585285415388" lon="9.099041705587515"><ele>287.0</ele><time>2026-05-01T06:32:50Z</time></trkpt><trkpt lat="40.67598428223755" lon="9.098919058304501"><ele>286.0</ele><time>2026-05-01T06:32:51Z</time></trkpt><trkpt lat="40.67611511596318" lon="9.098811331760285"><ele>285.0</ele><time>2026-05-01T06:32:52Z</time></trkpt><trkpt lat="40.676251711706165" lon="9.098707330540558"><ele>284.0</ele><time>2026-05-01T06:32:53Z</time></trkpt><trkpt lat="40.676383880201755" lon="9.098600332810735"><ele>284.0</ele><time>2026-05-01T06:32:54Z</time></trkpt><trkpt lat="40.67652245328273" lon="9.098502309211952"><ele>284.0</ele><time>2026-05-01T06:32:55Z</time></trkpt><trkpt lat="40.67666688911153" lon="9.098410942419882"><ele>284.0</ele><time>2026-05-01T06:32:56Z</time></trkpt><trkpt lat="40.676815848396" lon="9.098327568241073"><ele>284.33333333333337</ele><time>2026-05-01T06:32:57Z</time></trkpt><trkpt lat="40.67697345272832" lon="9.098244306418145"><ele>284.6666666666667</ele><time>2026-05-01T06:32:58Z</time></trkpt><trkpt lat="40.677128290024214" lon="9.098167912556509"><ele>285.0</ele><time>2026-05-01T06:32:59Z</time></trkpt><trkpt lat="40.6772777381212" lon="9.098095998476767"><ele>285.0</ele><time>2026-05-01T06:33:00Z</time></trkpt><trkpt lat="40.677424499523276" lon="9.098032971676345"><ele>285.0</ele><time>2026-05-01T06:33:01Z</time></trkpt><trkpt lat="40.677572630352905" lon="9.097985192739534"><ele>285.0</ele><time>2026-05-01T06:33:02Z</time></trkpt><trkpt lat="40.67772636698214" lon="9.097933244751781"><ele>284.0</ele><time>2026-05-01T06:33:03.001Z</time></trkpt><trkpt lat="40.67787248060131" lon="9.097884535061413"><ele>283.0</ele><time>2026-05-01T06:33:04Z</time></trkpt><trkpt lat="40.67803153916474" lon="9.09784215149433"><ele>282.0</ele><time>2026-05-01T06:33:05Z</time></trkpt><trkpt lat="40.67820006405243" lon="9.097795624877019"><ele>282.0</ele><time>2026-05-01T06:33:06Z</time></trkpt><trkpt lat="40.67834909262874" lon="9.097753785232486"><ele>282.0</ele><time>2026-05-01T06:33:07Z</time></trkpt><trkpt lat="40.67847739681681" lon="9.097714004779142"><ele>282.0</ele><time>2026-05-01T06:33:08Z</time></trkpt><trkpt lat="40.67858565444965" lon="9.097681658099848"><ele>282.0</ele><time>2026-05-01T06:33:09Z</time></trkpt><trkpt lat="40.67867946176198" lon="9.097656634861838"><ele>281.3333333333333</ele><time>2026-05-01T06:33:10Z</time></trkpt><trkpt lat="40.67876088062722" lon="9.097642281959557"><ele>280.6666666666667</ele><time>2026-05-01T06:33:11Z</time></trkpt><trkpt lat="40.678827952099866" lon="9.097629329273971"><ele>280.0</ele><time>2026-05-01T06:33:12Z</time></trkpt><trkpt lat="40.67892194467954" lon="9.0976019855558"><ele>279.33333333333337</ele><time>2026-05-01T06:33:14Z</time></trkpt><trkpt lat="40.678992199710535" lon="9.097565334730083"><ele>278.6666666666667</ele><time>2026-05-01T06:34:54Z</time></trkpt><trkpt lat="40.679095983078255" lon="9.097541344748997"><ele>278.0</ele><time>2026-05-01T06:34:56Z</time></trkpt><trkpt lat="40.679216727472074" lon="9.097507562223177"><ele>278.0</ele><time>2026-05-01T06:34:58Z</time></trkpt><trkpt lat="40.679295469542566" lon="9.097500691673634"><ele>278.0</ele><time>2026-05-01T06:34:59Z</time></trkpt><trkpt lat="40.679360183498765" lon="9.097490348045099"><ele>278.0</ele><time>2026-05-01T06:35:00Z</time></trkpt><trkpt lat="40.679465534988836" lon="9.097471450015428"><ele>278.0</ele><time>2026-05-01T06:35:01Z</time></trkpt><trkpt lat="40.679568995635506" lon="9.097436096443495"><ele>278.0</ele><time>2026-05-01T06:35:02Z</time></trkpt><trkpt lat="40.67968184214243" lon="9.097398930758345"><ele>277.25</ele><time>2026-05-01T06:35:03Z</time></trkpt><trkpt lat="40.679800921075866" lon="9.097365341857518"><ele>276.5</ele><time>2026-05-01T06:35:04Z</time></trkpt><trkpt lat="40.67991714545249" lon="9.097327258052616"><ele>275.75</ele><time>2026-05-01T06:35:05Z</time></trkpt><trkpt lat="40.68004067865853" lon="9.097291597815232"><ele>275.0</ele><time>2026-05-01T06:35:06Z</time></trkpt><trkpt lat="40.68016932744778" lon="9.097255282315992"><ele>274.75</ele><time>2026-05-01T06:35:07Z</time></trkpt><trkpt lat="40.68029243945997" lon="9.097225697894785"><ele>274.5</ele><time>2026-05-01T06:35:08Z</time></trkpt><trkpt lat="40.680420294212865" lon="9.097186418904917"><ele>274.25</ele><time>2026-05-01T06:35:09.001Z</time></trkpt><trkpt lat="40.680558852899" lon="9.097144072347898"><ele>274.0</ele><time>2026-05-01T06:35:10Z</time></trkpt><trkpt lat="40.68070157023674" lon="9.097102464481587"><ele>274.0</ele><time>2026-05-01T06:35:11Z</time></trkpt><trkpt lat="40.68084837945708" lon="9.09706420992636"><ele>274.0</ele><time>2026-05-01T06:35:12Z</time></trkpt><trkpt lat="40.68099449395424" lon="9.097020172075188"><ele>274.0</ele><time>2026-05-01T06:35:13Z</time></trkpt><trkpt lat="40.68114491661837" lon="9.096975589041795"><ele>273.0</ele><time>2026-05-01T06:35:14Z</time></trkpt><trkpt lat="40.681299210207314" lon="9.096933019436056"><ele>272.0</ele><time>2026-05-01T06:35:15.001Z</time></trkpt><trkpt lat="40.681449687801724" lon="9.096894939908202"><ele>271.0</ele><time>2026-05-01T06:35:16Z</time></trkpt><trkpt lat="40.6815988988956" lon="9.096859123280554"><ele>271.0</ele><time>2026-05-01T06:35:17Z</time></trkpt><trkpt lat="40.68175857378834" lon="9.096824709792276"><ele>271.0</ele><time>2026-05-01T06:35:18Z</time></trkpt><trkpt lat="40.68191648232545" lon="9.096794166158418"><ele>271.0</ele><time>2026-05-01T06:35:19.001Z</time></trkpt><trkpt lat="40.68208798143876" lon="9.09677064936953"><ele>271.3333333333333</ele><time>2026-05-01T06:35:20.001Z</time></trkpt><trkpt lat="40.682258929140524" lon="9.096759638398874"><ele>271.6666666666667</ele><time>2026-05-01T06:35:21.001Z</time></trkpt><trkpt lat="40.6824315574556" lon="9.096763980675904"><ele>272.0</ele><time>2026-05-01T06:35:22Z</time></trkpt><trkpt lat="40.68259385686767" lon="9.096776917461096"><ele>271.33333333333337</ele><time>2026-05-01T06:35:23Z</time></trkpt><trkpt lat="40.68276446655044" lon="9.096792103379398"><ele>270.6666666666667</ele><time>2026-05-01T06:35:24Z</time></trkpt><trkpt lat="40.68293275590692" lon="9.096804656243846"><ele>270.0</ele><time>2026-05-01T06:35:25Z</time></trkpt><trkpt lat="40.68310912147509" lon="9.096822131210738"><ele>270.0</ele><time>2026-05-01T06:35:26Z</time></trkpt><trkpt lat="40.68328821829286" lon="9.096840095309261"><ele>270.0</ele><time>2026-05-01T06:35:27Z</time></trkpt><trkpt lat="40.68346905730008" lon="9.096858736132566"><ele>270.0</ele><time>2026-05-01T06:35:28Z</time></trkpt><trkpt lat="40.68364542499073" lon="9.09687878573548"><ele>270.3333333333333</ele><time>2026-05-01T06:35:29Z</time></trkpt><trkpt lat="40.68381677873477" lon="9.096895190987093"><ele>270.66666666666663</ele><time>2026-05-01T06:35:30Z</time></trkpt><trkpt lat="40.683991912358394" lon="9.096909110722702"><ele>271.0</ele><time>2026-05-01T06:35:31Z</time></trkpt><trkpt lat="40.68416845033748" lon="9.096923068849884"><ele>271.0</ele><time>2026-05-01T06:35:32Z</time></trkpt><trkpt lat="40.68434034296868" lon="9.096936867393762"><ele>271.0</ele><time>2026-05-01T06:35:33Z</time></trkpt><trkpt lat="40.684517734973575" lon="9.096952226202768"><ele>271.0</ele><time>2026-05-01T06:35:34Z</time></trkpt><trkpt lat="40.684691232719935" lon="9.096965744918819"><ele>272.0</ele><time>2026-05-01T06:35:35Z</time></trkpt><trkpt lat="40.68486706099642" lon="9.096983295570146"><ele>273.0</ele><time>2026-05-01T06:35:36Z</time></trkpt><trkpt lat="40.68504151511407" lon="9.096999517065928"><ele>274.0</ele><time>2026-05-01T06:35:37Z</time></trkpt><trkpt lat="40.68521647609644" lon="9.097015231381578"><ele>276.66666666666663</ele><time>2026-05-01T06:35:38Z</time></trkpt><trkpt lat="40.68538911797551" lon="9.0970304447398"><ele>279.3333333333333</ele><time>2026-05-01T06:35:39Z</time></trkpt><trkpt lat="40.685562282988116" lon="9.097043803835914"><ele>282.0</ele><time>2026-05-01T06:35:40Z</time></trkpt><trkpt lat="40.68573345335707" lon="9.097056337902854"><ele>282.0</ele><time>2026-05-01T06:35:41Z</time></trkpt><trkpt lat="40.68590321074636" lon="9.0970698800068"><ele>282.0</ele><time>2026-05-01T06:35:42Z</time></trkpt><trkpt lat="40.68607661760964" lon="9.09708457630303"><ele>282.0</ele><time>2026-05-01T06:35:43Z</time></trkpt><trkpt lat="40.68625410249934" lon="9.097100571880473"><ele>284.3333333333333</ele><time>2026-05-01T06:35:44Z</time></trkpt><trkpt lat="40.686429593551985" lon="9.097118723822577"><ele>286.66666666666663</ele><time>2026-05-01T06:35:45Z</time></trkpt><trkpt lat="40.68660276683922" lon="9.097138533975627"><ele>289.0</ele><time>2026-05-01T06:35:46Z</time></trkpt><trkpt lat="40.6867705914246" lon="9.097160139445705"><ele>290.3333333333333</ele><time>2026-05-01T06:35:47Z</time></trkpt><trkpt lat="40.686936690431835" lon="9.097185687873974"><ele>291.6666666666667</ele><time>2026-05-01T06:35:48Z</time></trkpt><trkpt lat="40.687099907679176" lon="9.097216191836345"><ele>293.0</ele><time>2026-05-01T06:35:49Z</time></trkpt><trkpt lat="40.68726287987661" lon="9.097257635827813"><ele>293.0</ele><time>2026-05-01T06:35:50Z</time></trkpt><trkpt lat="40.687423782485396" lon="9.0973169835503"><ele>293.0</ele><time>2026-05-01T06:35:51Z</time></trkpt><trkpt lat="40.687581516320364" lon="9.097388413343996"><ele>293.0</ele><time>2026-05-01T06:35:52Z</time></trkpt><trkpt lat="40.68773227612435" lon="9.097474114742813"><ele>294.0</ele><time>2026-05-01T06:35:53Z</time></trkpt><trkpt lat="40.68788003908132" lon="9.097570117548768"><ele>295.0</ele><time>2026-05-01T06:35:54Z</time></trkpt><trkpt lat="40.688028283490986" lon="9.097677577783607"><ele>296.0</ele><time>2026-05-01T06:35:55Z</time></trkpt><trkpt lat="40.68817196964964" lon="9.09779760548777"><ele>296.0</ele><time>2026-05-01T06:35:56Z</time></trkpt><trkpt lat="40.68830967541374" lon="9.097922034028448"><ele>296.0</ele><time>2026-05-01T06:35:57Z</time></trkpt><trkpt lat="40.68845304954104" lon="9.098046250106453"><ele>296.0</ele><time>2026-05-01T06:35:58Z</time></trkpt><trkpt lat="40.68859852743821" lon="9.098175659618336"><ele>297.6666666666667</ele><time>2026-05-01T06:35:59Z</time></trkpt><trkpt lat="40.688745156857735" lon="9.098299620798473"><ele>299.3333333333333</ele><time>2026-05-01T06:36:00Z</time></trkpt><trkpt lat="40.68889111756257" lon="9.098425098127317"><ele>301.0</ele><time>2026-05-01T06:36:01Z</time></trkpt><trkpt lat="40.68904449645395" lon="9.098550302421836"><ele>301.0</ele><time>2026-05-01T06:36:02Z</time></trkpt><trkpt lat="40.68920384065655" lon="9.098677445885544"><ele>301.0</ele><time>2026-05-01T06:36:03Z</time></trkpt><trkpt lat="40.689352378438606" lon="9.098805182197147"><ele>301.0</ele><time>2026-05-01T06:36:04Z</time></trkpt><trkpt lat="40.68950324168064" lon="9.098932932393328"><ele>300.66666666666663</ele><time>2026-05-01T06:36:05Z</time></trkpt><trkpt lat="40.68965724550441" lon="9.099063678752481"><ele>300.3333333333333</ele><time>2026-05-01T06:36:06Z</time></trkpt><trkpt lat="40.68981053080167" lon="9.099193837771665"><ele>300.0</ele><time>2026-05-01T06:36:07Z</time></trkpt><trkpt lat="40.689962932194504" lon="9.099322148369414"><ele>300.0</ele><time>2026-05-01T06:36:08Z</time></trkpt><trkpt lat="40.690115169050216" lon="9.099450209186939"><ele>300.0</ele><time>2026-05-01T06:36:09Z</time></trkpt><trkpt lat="40.69026590674673" lon="9.099579307977095"><ele>300.0</ele><time>2026-05-01T06:36:10Z</time></trkpt><trkpt lat="40.69041480046392" lon="9.099707105473556"><ele>300.6666666666667</ele><time>2026-05-01T06:36:11Z</time></trkpt><trkpt lat="40.69056462144182" lon="9.099837181425805"><ele>301.33333333333337</ele><time>2026-05-01T06:36:12Z</time></trkpt><trkpt lat="40.69071604598607" lon="9.099967039716553"><ele>302.0</ele><time>2026-05-01T06:36:13Z</time></trkpt><trkpt lat="40.690869215417024" lon="9.10009957288969"><ele>302.0</ele><time>2026-05-01T06:36:14Z</time></trkpt><trkpt lat="40.69102358581185" lon="9.100233590974312"><ele>302.0</ele><time>2026-05-01T06:36:15Z</time></trkpt><trkpt lat="40.69117840010849" lon="9.100366216156596"><ele>302.0</ele><time>2026-05-01T06:36:16Z</time></trkpt><trkpt lat="40.69133474120051" lon="9.100496792609606"><ele>302.6666666666667</ele><time>2026-05-01T06:36:17Z</time></trkpt><trkpt lat="40.691489237005136" lon="9.10062992780875"><ele>303.3333333333333</ele><time>2026-05-01T06:36:18Z</time></trkpt><trkpt lat="40.69163695136122" lon="9.100759649256906"><ele>304.0</ele><time>2026-05-01T06:36:19Z</time></trkpt><trkpt lat="40.691780784948676" lon="9.100889437576988"><ele>301.0</ele><time>2026-05-01T06:36:20Z</time></trkpt><trkpt lat="40.69191943486806" lon="9.101017838128188"><ele>298.0</ele><time>2026-05-01T06:36:21Z</time></trkpt><trkpt lat="40.69205072355346" lon="9.101149899145447"><ele>295.0</ele><time>2026-05-01T06:36:22Z</time></trkpt><trkpt lat="40.692174632893746" lon="9.101280941599448"><ele>294.3333333333333</ele><time>2026-05-01T06:36:23Z</time></trkpt><trkpt lat="40.692296673296156" lon="9.101426104762341"><ele>293.6666666666667</ele><time>2026-05-01T06:36:24Z</time></trkpt><trkpt lat="40.692404327078464" lon="9.101578490830137"><ele>293.0</ele><time>2026-05-01T06:36:25Z</time></trkpt><trkpt lat="40.69250972659644" lon="9.10173980887503"><ele>290.6666666666667</ele><time>2026-05-01T06:36:26Z</time></trkpt><trkpt lat="40.6926196665872" lon="9.101910527255365"><ele>288.3333333333333</ele><time>2026-05-01T06:36:27Z</time></trkpt><trkpt lat="40.69272319982736" lon="9.102092542426007"><ele>286.0</ele><time>2026-05-01T06:36:28Z</time></trkpt><trkpt lat="40.692816718949054" lon="9.10228089258579"><ele>283.0</ele><time>2026-05-01T06:36:29Z</time></trkpt><trkpt lat="40.69290539131357" lon="9.10247263737274"><ele>280.0</ele><time>2026-05-01T06:36:30Z</time></trkpt><trkpt lat="40.69298392737788" lon="9.102665839187035"><ele>277.0</ele><time>2026-05-01T06:36:31Z</time></trkpt><trkpt lat="40.693059582632046" lon="9.102864352791363"><ele>277.0</ele><time>2026-05-01T06:36:32Z</time></trkpt><trkpt lat="40.69312429205767" lon="9.10306503584546"><ele>277.0</ele><time>2026-05-01T06:36:33Z</time></trkpt><trkpt lat="40.693191716803035" lon="9.103276188127952"><ele>277.0</ele><time>2026-05-01T06:36:34Z</time></trkpt><trkpt lat="40.69325422353849" lon="9.103488648132645"><ele>276.0</ele><time>2026-05-01T06:36:35Z</time></trkpt><trkpt lat="40.69331489366151" lon="9.103703970092806"><ele>275.0</ele><time>2026-05-01T06:36:36Z</time></trkpt><trkpt lat="40.693375287211275" lon="9.103923823083079"><ele>274.0</ele><time>2026-05-01T06:36:37Z</time></trkpt><trkpt lat="40.69344031803409" lon="9.104144455449442"><ele>273.66666666666663</ele><time>2026-05-01T06:36:38Z</time></trkpt><trkpt lat="40.69350135445914" lon="9.104362918878891"><ele>273.3333333333333</ele><time>2026-05-01T06:36:39Z</time></trkpt><trkpt lat="40.693566325776516" lon="9.104579786611458"><ele>273.0</ele><time>2026-05-01T06:36:40Z</time></trkpt><trkpt lat="40.693630291015765" lon="9.104796762162817"><ele>272.3333333333333</ele><time>2026-05-01T06:36:41Z</time></trkpt><trkpt lat="40.6936931255235" lon="9.105018168823024"><ele>271.66666666666663</ele><time>2026-05-01T06:36:42Z</time></trkpt><trkpt lat="40.69375578200411" lon="9.105234235139772"><ele>271.0</ele><time>2026-05-01T06:36:43Z</time></trkpt><trkpt lat="40.69381904137476" lon="9.105453483176998"><ele>271.0</ele><time>2026-05-01T06:36:44Z</time></trkpt><trkpt lat="40.69388242349858" lon="9.105670318240755"><ele>271.0</ele><time>2026-05-01T06:36:45.001Z</time></trkpt><trkpt lat="40.69394238832427" lon="9.105882552711408"><ele>271.0</ele><time>2026-05-01T06:36:46.001Z</time></trkpt><trkpt lat="40.69399947457853" lon="9.106089176752294"><ele>269.66666666666663</ele><time>2026-05-01T06:36:47.001Z</time></trkpt><trkpt lat="40.694059673852294" lon="9.106298569351704"><ele>268.3333333333333</ele><time>2026-05-01T06:36:48.001Z</time></trkpt><trkpt lat="40.694118788153666" lon="9.106510163249876"><ele>267.0</ele><time>2026-05-01T06:36:49.001Z</time></trkpt><trkpt lat="40.694179984836815" lon="9.106723529389832"><ele>266.3333333333333</ele><time>2026-05-01T06:36:50.001Z</time></trkpt><trkpt lat="40.694243692109886" lon="9.106937627345781"><ele>265.66666666666663</ele><time>2026-05-01T06:36:51.001Z</time></trkpt><trkpt lat="40.69430909329898" lon="9.107155082866697"><ele>265.0</ele><time>2026-05-01T06:36:52.001Z</time></trkpt><trkpt lat="40.694372218700714" lon="9.107375137684624"><ele>265.3333333333333</ele><time>2026-05-01T06:36:53.001Z</time></trkpt><trkpt lat="40.69443619179568" lon="9.107592675433896"><ele>265.6666666666667</ele><time>2026-05-01T06:36:54.001Z</time></trkpt><trkpt lat="40.69449793656017" lon="9.107806495466917"><ele>266.0</ele><time>2026-05-01T06:36:55.001Z</time></trkpt><trkpt lat="40.69455803430199" lon="9.108020414263374"><ele>266.0</ele><time>2026-05-01T06:36:56.001Z</time></trkpt><trkpt lat="40.69461992601543" lon="9.108234648981915"><ele>266.0</ele><time>2026-05-01T06:36:57.001Z</time></trkpt><trkpt lat="40.69468257384366" lon="9.108445882283098"><ele>266.0</ele><time>2026-05-01T06:36:58.001Z</time></trkpt><trkpt lat="40.694740733263515" lon="9.108652714102545"><ele>265.6666666666667</ele><time>2026-05-01T06:36:59.001Z</time></trkpt><trkpt lat="40.69480351766568" lon="9.108856879477303"><ele>265.3333333333333</ele><time>2026-05-01T06:37:00.001Z</time></trkpt><trkpt lat="40.69487679670189" lon="9.109063672340072"><ele>265.0</ele><time>2026-05-01T06:37:01.001Z</time></trkpt><trkpt lat="40.69495650839229" lon="9.109266363570708"><ele>265.66666666666663</ele><time>2026-05-01T06:37:02.001Z</time></trkpt><trkpt lat="40.69504393897533" lon="9.109464137711045"><ele>266.3333333333333</ele><time>2026-05-01T06:37:03.001Z</time></trkpt><trkpt lat="40.69514267699774" lon="9.109663344263028"><ele>267.0</ele><time>2026-05-01T06:37:04.001Z</time></trkpt><trkpt lat="40.695246843749295" lon="9.109856191718563"><ele>265.3333333333333</ele><time>2026-05-01T06:37:05.001Z</time></trkpt><trkpt lat="40.69535708274686" lon="9.11004101023478"><ele>263.66666666666663</ele><time>2026-05-01T06:37:06.001Z</time></trkpt><trkpt lat="40.69547382788597" lon="9.110214694378085"><ele>262.0</ele><time>2026-05-01T06:37:07.001Z</time></trkpt><trkpt lat="40.69559478219637" lon="9.110385861808547"><ele>262.0</ele><time>2026-05-01T06:37:08.001Z</time></trkpt><trkpt lat="40.69571838675111" lon="9.110556263374832"><ele>262.0</ele><time>2026-05-01T06:37:09.001Z</time></trkpt><trkpt lat="40.69584560112037" lon="9.110721268011195"><ele>262.0</ele><time>2026-05-01T06:37:10.001Z</time></trkpt><trkpt lat="40.69598150815467" lon="9.110881000932277"><ele>261.0</ele><time>2026-05-01T06:37:11.001Z</time></trkpt><trkpt lat="40.69612321524744" lon="9.111031068148057"><ele>260.0</ele><time>2026-05-01T06:37:12.001Z</time></trkpt><trkpt lat="40.696267186578496" lon="9.111175406219472"><ele>259.0</ele><time>2026-05-01T06:37:13.001Z</time></trkpt><trkpt lat="40.69641492930605" lon="9.111312481979084"><ele>259.0</ele><time>2026-05-01T06:37:14.001Z</time></trkpt><trkpt lat="40.69657010735422" lon="9.111440832930297"><ele>259.0</ele><time>2026-05-01T06:37:15Z</time></trkpt><trkpt lat="40.696729747615485" lon="9.11155651330204"><ele>259.0</ele><time>2026-05-01T06:37:16Z</time></trkpt><trkpt lat="40.69689372065215" lon="9.111665336890338"><ele>258.3333333333333</ele><time>2026-05-01T06:37:17Z</time></trkpt><trkpt lat="40.6970724407186" lon="9.111786040670072"><ele>257.6666666666667</ele><time>2026-05-01T06:37:18Z</time></trkpt><trkpt lat="40.69724239631334" lon="9.111907523637313"><ele>257.0</ele><time>2026-05-01T06:37:19Z</time></trkpt><trkpt lat="40.69741490758426" lon="9.112025308308725"><ele>257.0</ele><time>2026-05-01T06:37:20Z</time></trkpt><trkpt lat="40.69758458027219" lon="9.112139341782571"><ele>257.0</ele><time>2026-05-01T06:37:21Z</time></trkpt><trkpt lat="40.69775293557292" lon="9.112251552878213"><ele>257.0</ele><time>2026-05-01T06:37:22Z</time></trkpt><trkpt lat="40.69792637496008" lon="9.112364662631142"><ele>256.0</ele><time>2026-05-01T06:37:23Z</time></trkpt><trkpt lat="40.69809836853724" lon="9.112478107160987"><ele>255.0</ele><time>2026-05-01T06:37:24.001Z</time></trkpt><trkpt lat="40.69827178894083" lon="9.11259444724608"><ele>254.0</ele><time>2026-05-01T06:37:25Z</time></trkpt><trkpt lat="40.69844391953572" lon="9.11270755188948"><ele>256.33333333333337</ele><time>2026-05-01T06:37:26Z</time></trkpt><trkpt lat="40.69860632500397" lon="9.112815039716764"><ele>258.6666666666667</ele><time>2026-05-01T06:37:27.001Z</time></trkpt><trkpt lat="40.69876173252393" lon="9.11291851278735"><ele>261.0</ele><time>2026-05-01T06:37:28Z</time></trkpt><trkpt lat="40.698912688676934" lon="9.113017142623578"><ele>261.0</ele><time>2026-05-01T06:37:29Z</time></trkpt><trkpt lat="40.69906360749618" lon="9.113116215098774"><ele>261.0</ele><time>2026-05-01T06:37:30Z</time></trkpt><trkpt lat="40.69921115753228" lon="9.113215069797736"><ele>261.0</ele><time>2026-05-01T06:37:31Z</time></trkpt><trkpt lat="40.69935518744906" lon="9.113304682848458"><ele>261.0</ele><time>2026-05-01T06:37:32Z</time></trkpt><trkpt lat="40.69949716437199" lon="9.113389116545415"><ele>261.0</ele><time>2026-05-01T06:37:33Z</time></trkpt><trkpt lat="40.69964683706605" lon="9.113469508370668"><ele>261.0</ele><time>2026-05-01T06:37:34Z</time></trkpt><trkpt lat="40.69980220705348" lon="9.113541232665439"><ele>261.0</ele><time>2026-05-01T06:37:35Z</time></trkpt><trkpt lat="40.69996029624336" lon="9.113606645594572"><ele>261.0</ele><time>2026-05-01T06:37:36Z</time></trkpt><trkpt lat="40.7001243686525" lon="9.113665421155531"><ele>261.0</ele><time>2026-05-01T06:37:37Z</time></trkpt><trkpt lat="40.7002954820137" lon="9.113718818141423"><ele>261.0</ele><time>2026-05-01T06:37:38Z</time></trkpt><trkpt lat="40.700466102288" lon="9.11376582683557"><ele>261.0</ele><time>2026-05-01T06:37:39Z</time></trkpt><trkpt lat="40.70063562698274" lon="9.113806052376011"><ele>261.0</ele><time>2026-05-01T06:37:40Z</time></trkpt><trkpt lat="40.70080167353651" lon="9.113836783404265"><ele>261.0</ele><time>2026-05-01T06:37:41Z</time></trkpt><trkpt lat="40.70097071382637" lon="9.113858941287655"><ele>261.0</ele><time>2026-05-01T06:37:42Z</time></trkpt><trkpt lat="40.701138769950795" lon="9.113880740872903"><ele>261.0</ele><time>2026-05-01T06:37:43Z</time></trkpt><trkpt lat="40.70131601431225" lon="9.113906235438723"><ele>259.0</ele><time>2026-05-01T06:37:44Z</time></trkpt><trkpt lat="40.70148927826262" lon="9.11393326764273"><ele>257.0</ele><time>2026-05-01T06:37:45Z</time></trkpt><trkpt lat="40.70166526063085" lon="9.113958037217643"><ele>255.0</ele><time>2026-05-01T06:37:46Z</time></trkpt><trkpt lat="40.70183779672698" lon="9.113984184569674"><ele>254.33333333333331</ele><time>2026-05-01T06:37:47Z</time></trkpt><trkpt lat="40.702016406531" lon="9.114011453222915"><ele>253.66666666666666</ele><time>2026-05-01T06:37:48Z</time></trkpt><trkpt lat="40.70219349310816" lon="9.11403921079529"><ele>253.0</ele><time>2026-05-01T06:37:49Z</time></trkpt><trkpt lat="40.70237586192643" lon="9.114069432673618"><ele>253.0</ele><time>2026-05-01T06:37:50Z</time></trkpt><trkpt lat="40.70255582543766" lon="9.114094238368395"><ele>253.0</ele><time>2026-05-01T06:37:51Z</time></trkpt><trkpt lat="40.70273614541941" lon="9.11411881659294"><ele>253.0</ele><time>2026-05-01T06:37:52Z</time></trkpt><trkpt lat="40.70291239837426" lon="9.11414568166515"><ele>253.0</ele><time>2026-05-01T06:37:53Z</time></trkpt><trkpt lat="40.703442085230634" lon="9.114219728882807"><ele>252.33333333333331</ele><time>2026-05-01T06:37:56Z</time></trkpt><trkpt lat="40.70362607125781" lon="9.114246925156147"><ele>251.66666666666669</ele><time>2026-05-01T06:37:57Z</time></trkpt><trkpt lat="40.70381036485192" lon="9.114274595293974"><ele>251.0</ele><time>2026-05-01T06:37:58Z</time></trkpt><trkpt lat="40.70416638440778" lon="9.114329427741898"><ele>251.0</ele><time>2026-05-01T06:38:00Z</time></trkpt><trkpt lat="40.70434397794216" lon="9.114355947685269"><ele>251.0</ele><time>2026-05-01T06:38:01Z</time></trkpt><trkpt lat="40.70470594192489" lon="9.114409467456412"><ele>251.33333333333334</ele><time>2026-05-01T06:38:03Z</time></trkpt><trkpt lat="40.704888641043446" lon="9.114437198039875"><ele>251.66666666666669</ele><time>2026-05-01T06:38:04Z</time></trkpt><trkpt lat="40.70506947769077" lon="9.114462931407132"><ele>252.0</ele><time>2026-05-01T06:38:05Z</time></trkpt><trkpt lat="40.705251339546926" lon="9.114493860164131"><ele>252.66666666666669</ele><time>2026-05-01T06:38:06Z</time></trkpt><trkpt lat="40.70543208975417" lon="9.114522932349054"><ele>253.33333333333334</ele><time>2026-05-01T06:38:07Z</time></trkpt><trkpt lat="40.70560820587938" lon="9.114551258191442"><ele>254.0</ele><time>2026-05-01T06:38:08Z</time></trkpt><trkpt lat="40.705783380142094" lon="9.11457585822042"><ele>254.0</ele><time>2026-05-01T06:38:09Z</time></trkpt><trkpt lat="40.70595600576904" lon="9.114598854636128"><ele>254.0</ele><time>2026-05-01T06:38:10Z</time></trkpt><trkpt lat="40.70612716872821" lon="9.114624965297198"><ele>254.0</ele><time>2026-05-01T06:38:11Z</time></trkpt><trkpt lat="40.70629804261743" lon="9.114650807786276"><ele>254.33333333333334</ele><time>2026-05-01T06:38:12Z</time></trkpt><trkpt lat="40.7064655654677" lon="9.114677072752402"><ele>254.66666666666669</ele><time>2026-05-01T06:38:12.999Z</time></trkpt><trkpt lat="40.70662761890661" lon="9.114704466020408"><ele>255.0</ele><time>2026-05-01T06:38:13.999Z</time></trkpt><trkpt lat="40.70679196792752" lon="9.114729418989347"><ele>255.33333333333331</ele><time>2026-05-01T06:38:14.999Z</time></trkpt><trkpt lat="40.70695988883763" lon="9.114753179888014"><ele>255.66666666666666</ele><time>2026-05-01T06:38:15.999Z</time></trkpt><trkpt lat="40.70712291785289" lon="9.114779419529613"><ele>256.0</ele><time>2026-05-01T06:38:16.999Z</time></trkpt><trkpt lat="40.70727966519102" lon="9.114806654486038"><ele>256.0</ele><time>2026-05-01T06:38:17.999Z</time></trkpt><trkpt lat="40.70742350748328" lon="9.11482912689655"><ele>256.0</ele><time>2026-05-01T06:38:18.999Z</time></trkpt><trkpt lat="40.707672969552064" lon="9.114860399870121"><ele>256.0</ele><time>2026-05-01T06:38:20.999Z</time></trkpt><trkpt lat="40.707767691705385" lon="9.114865041304684"><ele>256.6</ele><time>2026-05-01T06:38:21.999Z</time></trkpt><trkpt lat="40.7078393843594" lon="9.114889063259797"><ele>257.20000000000005</ele><time>2026-05-01T06:38:22.999Z</time></trkpt><trkpt lat="40.70792652512749" lon="9.11490636826686"><ele>257.79999999999995</ele><time>2026-05-01T06:38:24.999Z</time></trkpt><trkpt lat="40.707966129680564" lon="9.11479680499016"><ele>258.4</ele><time>2026-05-01T06:38:25.999Z</time></trkpt><trkpt lat="40.70804551638534" lon="9.114720364671829"><ele>259.0</ele><time>2026-05-01T06:39:34.999Z</time></trkpt><trkpt lat="40.70816676563918" lon="9.11463769126368"><ele>259.0</ele><time>2026-05-01T06:39:36.999Z</time></trkpt><trkpt lat="40.708386697444155" lon="9.114481426790173"><ele>259.0</ele><time>2026-05-01T06:39:39.999Z</time></trkpt><trkpt lat="40.70846843554593" lon="9.1144255839032"><ele>259.0</ele><time>2026-05-01T06:39:40.999Z</time></trkpt><trkpt lat="40.708554824481475" lon="9.114362580726658"><ele>259.0</ele><time>2026-05-01T06:39:41.999Z</time></trkpt><trkpt lat="40.70881913818602" lon="9.114165419837311"><ele>261.0</ele><time>2026-05-01T06:39:44.999Z</time></trkpt><trkpt lat="40.70890617776407" lon="9.114103578603878"><ele>263.0</ele><time>2026-05-01T06:39:45.999Z</time></trkpt><trkpt lat="40.70899834519942" lon="9.114039261048205"><ele>265.0</ele><time>2026-05-01T06:39:46.999Z</time></trkpt><trkpt lat="40.70925471437245" lon="9.113849182579026"><ele>265.0</ele><time>2026-05-01T06:39:49.999Z</time></trkpt><trkpt lat="40.70933949083626" lon="9.113784100394453"><ele>265.0</ele><time>2026-05-01T06:39:50.999Z</time></trkpt><trkpt lat="40.70941232638691" lon="9.113716439931562"><ele>265.0</ele><time>2026-05-01T06:39:51.999Z</time></trkpt><trkpt lat="40.70956692342474" lon="9.113453070471335"><ele>265.0</ele><time>2026-05-01T06:39:54.999Z</time></trkpt><trkpt lat="40.70959267314085" lon="9.113345750122907"><ele>264.66666666666663</ele><time>2026-05-01T06:39:55.999Z</time></trkpt><trkpt lat="40.70964872006407" lon="9.112972162478956"><ele>264.3333333333333</ele><time>2026-05-01T06:39:58.999Z</time></trkpt><trkpt lat="40.70967317170686" lon="9.112839262685316"><ele>264.0</ele><time>2026-05-01T06:39:59.999Z</time></trkpt><trkpt lat="40.70970308283648" lon="9.112700074573572"><ele>264.0</ele><time>2026-05-01T06:40:00.999Z</time></trkpt><trkpt lat="40.70974891455851" lon="9.112433482084251"><ele>264.0</ele><time>2026-05-01T06:40:02.999Z</time></trkpt><trkpt lat="40.70977556368121" lon="9.112315623715952"><ele>264.0</ele><time>2026-05-01T06:40:03.999Z</time></trkpt><trkpt lat="40.709862257548174" lon="9.112136061246016"><ele>264.5</ele><time>2026-05-01T06:40:05.999Z</time></trkpt><trkpt lat="40.70993828590042" lon="9.112048100676168"><ele>265.0</ele><time>2026-05-01T06:40:06.999Z</time></trkpt><trkpt lat="40.710139528464644" lon="9.11191666426909"><ele>265.5</ele><time>2026-05-01T06:40:08.999Z</time></trkpt><trkpt lat="40.71024221209756" lon="9.111869056805103"><ele>266.0</ele><time>2026-05-01T06:40:09.999Z</time></trkpt><trkpt lat="40.71033577545096" lon="9.11182651784559"><ele>263.5</ele><time>2026-05-01T06:40:10.999Z</time></trkpt><trkpt lat="40.71040098463706" lon="9.111779480054787"><ele>261.0</ele><time>2026-05-01T06:40:11.999Z</time></trkpt><trkpt lat="40.71050480739092" lon="9.111767346502175"><ele>258.5</ele><time>2026-05-01T06:40:13.999Z</time></trkpt><trkpt lat="40.71052587870365" lon="9.111451290432653"><ele>256.0</ele><time>2026-05-01T06:40:16.999Z</time></trkpt><trkpt lat="40.71049164456598" lon="9.111350943050743"><ele>255.66666666666666</ele><time>2026-05-01T06:40:17.999Z</time></trkpt><trkpt lat="40.71040446503139" lon="9.111107916873513"><ele>255.33333333333331</ele><time>2026-05-01T06:40:19.999Z</time></trkpt><trkpt lat="40.71034855494343" lon="9.110990786902951"><ele>255.0</ele><time>2026-05-01T06:40:20.999Z</time></trkpt><trkpt lat="40.71018680586468" lon="9.110727181611844"><ele>247.0</ele><time>2026-05-01T06:40:22.998Z</time></trkpt><trkpt lat="40.71154400917698" lon="9.110931165938412"><ele>247.0</ele><time>2026-05-01T06:40:23.998Z</time></trkpt><trkpt lat="40.71164207975797" lon="9.110845073999089"><ele>247.0</ele><time>2026-05-01T06:40:24.998Z</time></trkpt><trkpt lat="40.711840216340576" lon="9.110679664336773"><ele>247.0</ele><time>2026-05-01T06:40:26.998Z</time></trkpt><trkpt lat="40.711934382380086" lon="9.110597985100963"><ele>244.33333333333331</ele><time>2026-05-01T06:40:27.998Z</time></trkpt><trkpt lat="40.71212093813101" lon="9.11040684134829"><ele>241.66666666666669</ele><time>2026-05-01T06:40:29.998Z</time></trkpt><trkpt lat="40.7122131315664" lon="9.110287486756095"><ele>239.0</ele><time>2026-05-01T06:40:30.998Z</time></trkpt><trkpt lat="40.71240242834523" lon="9.110026182303532"><ele>239.33333333333334</ele><time>2026-05-01T06:40:32.998Z</time></trkpt><trkpt lat="40.712499221512644" lon="9.109884959936668"><ele>239.66666666666669</ele><time>2026-05-01T06:40:33.998Z</time></trkpt><trkpt lat="40.71259365043652" lon="9.109750463216743"><ele>240.0</ele><time>2026-05-01T06:40:34.998Z</time></trkpt><trkpt lat="40.71276582329415" lon="9.10953232603643"><ele>239.33333333333331</ele><time>2026-05-01T06:40:36.998Z</time></trkpt><trkpt lat="40.71284459854714" lon="9.109427358110663"><ele>238.66666666666666</ele><time>2026-05-01T06:40:37.998Z</time></trkpt><trkpt lat="40.712994732848536" lon="9.109207979468309"><ele>238.0</ele><time>2026-05-01T06:40:39.998Z</time></trkpt><trkpt lat="40.71305711801797" lon="9.109082420917783"><ele>237.5</ele><time>2026-05-01T06:40:40.998Z</time></trkpt><trkpt lat="40.713119530833744" lon="9.108953563705146"><ele>237.0</ele><time>2026-05-01T06:40:41.998Z</time></trkpt><trkpt lat="40.71322566577513" lon="9.10873131869573"><ele>236.5</ele><time>2026-05-01T06:40:43.998Z</time></trkpt><trkpt lat="40.71326204076865" lon="9.10865218722141"><ele>236.0</ele><time>2026-05-01T06:40:44.998Z</time></trkpt><trkpt lat="40.71328621960334" lon="9.108572330119433"><ele>236.0</ele><time>2026-05-01T06:40:46.998Z</time></trkpt><trkpt lat="40.71336430374768" lon="9.108675161476643"><ele>236.0</ele><time>2026-05-01T06:40:50.998Z</time></trkpt><trkpt lat="40.713457937182326" lon="9.108972804274845"><ele>236.0</ele><time>2026-05-01T06:40:53.998Z</time></trkpt><trkpt lat="40.713491156490875" lon="9.109094143553852"><ele>236.0</ele><time>2026-05-01T06:40:54.998Z</time></trkpt><trkpt lat="40.71353746146656" lon="9.109309656366792"><ele>236.0</ele><time>2026-05-01T06:40:56.998Z</time></trkpt><trkpt lat="40.71351725693503" lon="9.109391860852877"><ele>236.0</ele><time>2026-05-01T06:40:57.998Z</time></trkpt><trkpt lat="40.713568657528846" lon="9.109545051013955"><ele>236.0</ele><time>2026-05-01T06:40:59.998Z</time></trkpt><trkpt lat="40.71367373371606" lon="9.109632446277317"><ele>236.00000000000003</ele><time>2026-05-01T06:41:02.998Z</time></trkpt><trkpt lat="40.71374834031027" lon="9.109643634283682"><ele>236.0</ele><time>2026-05-01T06:41:04.998Z</time></trkpt><trkpt lat="40.71386283095838" lon="9.109603132621121"><ele>236.0</ele><time>2026-05-01T06:41:06.998Z</time></trkpt><trkpt lat="40.71392022342616" lon="9.10955561225996"><ele>236.0</ele><time>2026-05-01T06:41:07.998Z</time></trkpt><trkpt lat="40.71395230025184" lon="9.109412312084444"><ele>236.00000000000003</ele><time>2026-05-01T06:41:09.998Z</time></trkpt><trkpt lat="40.71392236723221" lon="9.109328248838747"><ele>236.0</ele><time>2026-05-01T06:41:10.998Z</time></trkpt><trkpt lat="40.713854869485395" lon="9.109123129470047"><ele>236.5</ele><time>2026-05-01T06:41:12.998Z</time></trkpt><trkpt lat="40.71382864024565" lon="9.109003550051618"><ele>237.0</ele><time>2026-05-01T06:41:13.998Z</time></trkpt><trkpt lat="40.713799183001306" lon="9.108885168461539"><ele>237.5</ele><time>2026-05-01T06:41:14.998Z</time></trkpt><trkpt lat="40.713754565583976" lon="9.108652024347805"><ele>238.0</ele><time>2026-05-01T06:41:16.998Z</time></trkpt><trkpt lat="40.71373338465183" lon="9.108541189055527"><ele>238.0</ele><time>2026-05-01T06:41:17.998Z</time></trkpt><trkpt lat="40.713663747779535" lon="9.108301845442492"><ele>238.0</ele><time>2026-05-01T06:41:19.998Z</time></trkpt><trkpt lat="40.71354847956631" lon="9.107948342061338"><ele>237.4</ele><time>2026-05-01T06:41:22.998Z</time></trkpt><trkpt lat="40.71352937205716" lon="9.107844755870785"><ele>236.8</ele><time>2026-05-01T06:41:23.998Z</time></trkpt><trkpt lat="40.713510334694725" lon="9.107750944218068"><ele>236.2</ele><time>2026-05-01T06:41:24.998Z</time></trkpt><trkpt lat="40.71348788713122" lon="9.107589130104108"><ele>235.6</ele><time>2026-05-01T06:41:26.998Z</time></trkpt><trkpt lat="40.71353264540151" lon="9.107503850537192"><ele>235.0</ele><time>2026-05-01T06:41:27.998Z</time></trkpt><trkpt lat="40.713551082874524" lon="9.107271159386906"><ele>234.0</ele><time>2026-05-01T06:41:29.997Z</time></trkpt><trkpt lat="40.713572025918346" lon="9.107141344203546"><ele>233.0</ele><time>2026-05-01T06:41:30.997Z</time></trkpt><trkpt lat="40.7135996395111" lon="9.106871147351729"><ele>232.0</ele><time>2026-05-01T06:41:32.998Z</time></trkpt><trkpt lat="40.71363234250714" lon="9.106739802769278"><ele>231.0</ele><time>2026-05-01T06:41:33.998Z</time></trkpt><trkpt lat="40.71364621877712" lon="9.106603284033117"><ele>228.0</ele><time>2026-05-01T06:41:34.998Z</time></trkpt><trkpt lat="40.71368955710031" lon="9.10633312092794"><ele>225.0</ele><time>2026-05-01T06:41:36.998Z</time></trkpt><trkpt lat="40.71372282414835" lon="9.10619339135873"><ele>222.0</ele><time>2026-05-01T06:41:37.998Z</time></trkpt><trkpt lat="40.713829008409625" lon="9.10591267165492"><ele>222.0</ele><time>2026-05-01T06:41:39.997Z</time></trkpt><trkpt lat="40.713893614510624" lon="9.105787044093452"><ele>222.0</ele><time>2026-05-01T06:41:40.997Z</time></trkpt><trkpt lat="40.71408020291497" lon="9.10554323029938"><ele>222.0</ele><time>2026-05-01T06:41:42.997Z</time></trkpt><trkpt lat="40.71418797791905" lon="9.10541683543264"><ele>220.0</ele><time>2026-05-01T06:41:43.997Z</time></trkpt><trkpt lat="40.71438269778793" lon="9.105154550987136"><ele>218.0</ele><time>2026-05-01T06:41:45.997Z</time></trkpt><trkpt lat="40.714481021066206" lon="9.10502669173795"><ele>216.0</ele><time>2026-05-01T06:41:46.997Z</time></trkpt><trkpt lat="40.714559398437" lon="9.10491252641806"><ele>212.0</ele><time>2026-05-01T06:41:47.997Z</time></trkpt><trkpt lat="40.714670622371635" lon="9.104759218606208"><ele>212.0</ele><time>2026-05-01T06:41:49.997Z</time></trkpt><trkpt lat="40.71476397846926" lon="9.104665481939163"><ele>212.0</ele><time>2026-05-01T06:41:52.997Z</time></trkpt><trkpt lat="40.71479139688983" lon="9.104570386199976"><ele>212.0</ele><time>2026-05-01T06:41:56.998Z</time></trkpt></trkseg><trkseg><trkpt lat="40.735427181100654" lon="8.977143653526678"><ele>302.0</ele><time>2026-05-01T07:05:43Z</time></trkpt><trkpt lat="40.73540438030958" lon="8.977015980771688"><ele>302.0</ele><time>2026-05-01T07:05:44Z</time></trkpt><trkpt lat="40.7353915046219" lon="8.976895532226052"><ele>302.0</ele><time>2026-05-01T07:05:45Z</time></trkpt><trkpt lat="40.73539824072143" lon="8.976767097953468"><ele>302.0</ele><time>2026-05-01T07:05:46Z</time></trkpt><trkpt lat="40.73543322267501" lon="8.976663815344397"><ele>302.0</ele><time>2026-05-01T07:05:47Z</time></trkpt><trkpt lat="40.735485236610394" lon="8.976566480955118"><ele>301.8</ele><time>2026-05-01T07:05:48Z</time></trkpt><trkpt lat="40.73555784915627" lon="8.976502576785425"><ele>301.6</ele><time>2026-05-01T07:05:49Z</time></trkpt><trkpt lat="40.7356505331428" lon="8.976495682162533"><ele>301.40000000000003</ele><time>2026-05-01T07:05:50Z</time></trkpt><trkpt lat="40.73574250795278" lon="8.97643908141273"><ele>301.2</ele><time>2026-05-01T07:05:51Z</time></trkpt><trkpt lat="40.73584411661015" lon="8.976410506647829"><ele>301.0</ele><time>2026-05-01T07:05:52Z</time></trkpt><trkpt lat="40.73592396846865" lon="8.976345704080622"><ele>301.0</ele><time>2026-05-01T07:05:53Z</time></trkpt><trkpt lat="40.735982703088354" lon="8.976244415987592"><ele>301.0</ele><time>2026-05-01T07:05:54Z</time></trkpt><trkpt lat="40.73602911258844" lon="8.97611870578441"><ele>301.0</ele><time>2026-05-01T07:05:55Z</time></trkpt><trkpt lat="40.736049232672464" lon="8.97599926456197"><ele>301.0</ele><time>2026-05-01T07:05:56Z</time></trkpt><trkpt lat="40.736060088524404" lon="8.975872988141948"><ele>301.0</ele><time>2026-05-01T07:05:57Z</time></trkpt><trkpt lat="40.736040502357774" lon="8.97572829443773"><ele>300.0</ele><time>2026-05-01T07:05:58Z</time></trkpt><trkpt lat="40.736027234106515" lon="8.975589705081154"><ele>299.0</ele><time>2026-05-01T07:05:59Z</time></trkpt><trkpt lat="40.736028697496266" lon="8.975457163274507"><ele>298.0</ele><time>2026-05-01T07:06:00Z</time></trkpt><trkpt lat="40.73605497292007" lon="8.9753505048519"><ele>297.0</ele><time>2026-05-01T07:06:01Z</time></trkpt><trkpt lat="40.736131467533134" lon="8.97526376065898"><ele>296.0</ele><time>2026-05-01T07:06:02Z</time></trkpt><trkpt lat="40.73619345407307" lon="8.975143750910819"><ele>303.25</ele><time>2026-05-01T07:06:03Z</time></trkpt><trkpt lat="40.73627085584685" lon="8.975022846667372"><ele>310.5</ele><time>2026-05-01T07:06:04Z</time></trkpt><trkpt lat="40.7363438950609" lon="8.974899215259759"><ele>317.75</ele><time>2026-05-01T07:06:05Z</time></trkpt><trkpt lat="40.73641331838" lon="8.9747790097692"><ele>325.0</ele><time>2026-05-01T07:06:06Z</time></trkpt><trkpt lat="40.7364833597551" lon="8.974669103812895"><ele>325.0</ele><time>2026-05-01T07:06:07Z</time></trkpt><trkpt lat="40.7365484818617" lon="8.974560562784395"><ele>325.0</ele><time>2026-05-01T07:06:08Z</time></trkpt><trkpt lat="40.736593602398344" lon="8.974456951039063"><ele>325.0</ele><time>2026-05-01T07:06:09Z</time></trkpt><trkpt lat="40.73658636883001" lon="8.974339192604774"><ele>325.0</ele><time>2026-05-01T07:06:10Z</time></trkpt><trkpt lat="40.736582699780584" lon="8.974229298470984"><ele>325.0</ele><time>2026-05-01T07:06:11Z</time></trkpt><trkpt lat="40.736569068209064" lon="8.97411828825543"><ele>324.5</ele><time>2026-05-01T07:06:12Z</time></trkpt><trkpt lat="40.7365640261462" lon="8.974010852477695"><ele>324.0</ele><time>2026-05-01T07:06:13Z</time></trkpt><trkpt lat="40.73658576872891" lon="8.973902068144497"><ele>323.5</ele><time>2026-05-01T07:06:14Z</time></trkpt><trkpt lat="40.736624364949186" lon="8.97380753615442"><ele>323.0</ele><time>2026-05-01T07:06:15Z</time></trkpt><trkpt lat="40.73667266701726" lon="8.97372653691061"><ele>322.5</ele><time>2026-05-01T07:06:16Z</time></trkpt><trkpt lat="40.73672683387258" lon="8.973614825010436"><ele>322.0</ele><time>2026-05-01T07:06:17.001Z</time></trkpt><trkpt lat="40.736778822899645" lon="8.973506252896643"><ele>322.0</ele><time>2026-05-01T07:06:18.001Z</time></trkpt><trkpt lat="40.73679635762868" lon="8.973401903835946"><ele>322.0</ele><time>2026-05-01T07:06:19.001Z</time></trkpt><trkpt lat="40.736801979257294" lon="8.973283595458371"><ele>322.0</ele><time>2026-05-01T07:06:20.001Z</time></trkpt><trkpt lat="40.7367868422276" lon="8.973145874887534"><ele>322.0</ele><time>2026-05-01T07:06:21.001Z</time></trkpt><trkpt lat="40.73676846569872" lon="8.973004068482572"><ele>322.0</ele><time>2026-05-01T07:06:22.001Z</time></trkpt><trkpt lat="40.73675804117714" lon="8.972868604324397"><ele>321.8</ele><time>2026-05-01T07:06:23.001Z</time></trkpt><trkpt lat="40.736769850320975" lon="8.972756744127723"><ele>321.6</ele><time>2026-05-01T07:06:24.001Z</time></trkpt><trkpt lat="40.7368135022264" lon="8.972645074024562"><ele>321.40000000000003</ele><time>2026-05-01T07:06:25.001Z</time></trkpt><trkpt lat="40.736873704954" lon="8.972534499565652"><ele>321.20000000000005</ele><time>2026-05-01T07:06:26.001Z</time></trkpt><trkpt lat="40.7369428331784" lon="8.972428564084689"><ele>321.0</ele><time>2026-05-01T07:06:27.001Z</time></trkpt><trkpt lat="40.73700192180656" lon="8.972313133373817"><ele>329.6</ele><time>2026-05-01T07:06:28.001Z</time></trkpt><trkpt lat="40.737048105765766" lon="8.97220453808011"><ele>338.20000000000005</ele><time>2026-05-01T07:06:29.001Z</time></trkpt><trkpt lat="40.73706900524142" lon="8.97209810147346"><ele>346.79999999999995</ele><time>2026-05-01T07:06:30.001Z</time></trkpt><trkpt lat="40.73706130817963" lon="8.97198463192028"><ele>355.4</ele><time>2026-05-01T07:06:31.001Z</time></trkpt><trkpt lat="40.73703693564531" lon="8.971872825619565"><ele>364.0</ele><time>2026-05-01T07:06:32.001Z</time></trkpt><trkpt lat="40.73700734465058" lon="8.971748968160645"><ele>361.66666666666663</ele><time>2026-05-01T07:06:33.001Z</time></trkpt><trkpt lat="40.73698651360521" lon="8.971630227956243"><ele>359.3333333333333</ele><time>2026-05-01T07:06:34.001Z</time></trkpt><trkpt lat="40.7370078658405" lon="8.971545264165522"><ele>357.0</ele><time>2026-05-01T07:06:35.001Z</time></trkpt><trkpt lat="40.737058673706926" lon="8.971478801398483"><ele>354.6666666666667</ele><time>2026-05-01T07:06:36.001Z</time></trkpt><trkpt lat="40.73712122279524" lon="8.97144144945801"><ele>352.33333333333337</ele><time>2026-05-01T07:06:37.001Z</time></trkpt><trkpt lat="40.73720489994365" lon="8.971463367565017"><ele>350.0</ele><time>2026-05-01T07:06:38.001Z</time></trkpt><trkpt lat="40.73729000999738" lon="8.971431894637805"><ele>350.0</ele><time>2026-05-01T07:06:39.001Z</time></trkpt><trkpt lat="40.73738767438738" lon="8.97142162584619"><ele>350.0</ele><time>2026-05-01T07:06:40.001Z</time></trkpt><trkpt lat="40.73749231536545" lon="8.971404104858442"><ele>350.0</ele><time>2026-05-01T07:06:41.001Z</time></trkpt><trkpt lat="40.73759883674929" lon="8.971373511969622"><ele>350.0</ele><time>2026-05-01T07:06:42.001Z</time></trkpt><trkpt lat="40.737715356092416" lon="8.971340496593571"><ele>350.0</ele><time>2026-05-01T07:06:43.001Z</time></trkpt><trkpt lat="40.737838350619704" lon="8.9713176264769"><ele>357.25</ele><time>2026-05-01T07:06:44.001Z</time></trkpt><trkpt lat="40.737964144343906" lon="8.971292399825332"><ele>364.5</ele><time>2026-05-01T07:06:45.001Z</time></trkpt><trkpt lat="40.73807455421843" lon="8.971263030932922"><ele>371.75</ele><time>2026-05-01T07:06:46.001Z</time></trkpt><trkpt lat="40.73816716324768" lon="8.9711994263177"><ele>379.0</ele><time>2026-05-01T07:06:47.001Z</time></trkpt><trkpt lat="40.738250581992745" lon="8.971109774442477"><ele>379.0</ele><time>2026-05-01T07:06:48.001Z</time></trkpt><trkpt lat="40.73832029777855" lon="8.970996069772482"><ele>379.0</ele><time>2026-05-01T07:06:49.001Z</time></trkpt><trkpt lat="40.7383779837228" lon="8.970869331848956"><ele>379.0</ele><time>2026-05-01T07:06:50.001Z</time></trkpt><trkpt lat="40.73843621942937" lon="8.970756301291763"><ele>379.0</ele><time>2026-05-01T07:06:51.001Z</time></trkpt><trkpt lat="40.73850496920355" lon="8.970672714323591"><ele>379.0</ele><time>2026-05-01T07:06:52.001Z</time></trkpt><trkpt lat="40.7385716038619" lon="8.970584832633902"><ele>379.25</ele><time>2026-05-01T07:06:53.001Z</time></trkpt><trkpt lat="40.7386482148485" lon="8.970502740427703"><ele>379.5</ele><time>2026-05-01T07:06:54.001Z</time></trkpt><trkpt lat="40.738798671047135" lon="8.970567059575401"><ele>379.75</ele><time>2026-05-01T07:06:55.001Z</time></trkpt><trkpt lat="40.738910016769324" lon="8.970514869837748"><ele>380.0</ele><time>2026-05-01T07:06:56.001Z</time></trkpt><trkpt lat="40.73902653647814" lon="8.97047486829116"><ele>380.0</ele><time>2026-05-01T07:06:57.001Z</time></trkpt><trkpt lat="40.73914343895858" lon="8.970427697651994"><ele>380.0</ele><time>2026-05-01T07:06:58.001Z</time></trkpt><trkpt lat="40.73925503570543" lon="8.97037233529803"><ele>380.0</ele><time>2026-05-01T07:06:59.001Z</time></trkpt><trkpt lat="40.73935452742918" lon="8.970299402839187"><ele>380.0</ele><time>2026-05-01T07:07:00.001Z</time></trkpt><trkpt lat="40.73944862574628" lon="8.970203406658174"><ele>381.5</ele><time>2026-05-01T07:07:01.001Z</time></trkpt><trkpt lat="40.73954166422942" lon="8.970095190797684"><ele>383.0</ele><time>2026-05-01T07:07:02.001Z</time></trkpt><trkpt lat="40.739638056369856" lon="8.969984420854022"><ele>384.5</ele><time>2026-05-01T07:07:03.001Z</time></trkpt><trkpt lat="40.73974023804928" lon="8.969871543476467"><ele>386.0</ele><time>2026-05-01T07:07:04.001Z</time></trkpt><trkpt lat="40.73985247314393" lon="8.969752892422328"><ele>386.0</ele><time>2026-05-01T07:07:05.001Z</time></trkpt><trkpt lat="40.739960780511154" lon="8.969640276198666"><ele>386.0</ele><time>2026-05-01T07:07:06.001Z</time></trkpt><trkpt lat="40.74007203466782" lon="8.96953900753356"><ele>386.0</ele><time>2026-05-01T07:07:07.001Z</time></trkpt><trkpt lat="40.74017515213225" lon="8.969417847117573"><ele>386.0</ele><time>2026-05-01T07:07:08.001Z</time></trkpt><trkpt lat="40.74027526806467" lon="8.969310918918794"><ele>388.49999999999994</ele><time>2026-05-01T07:07:09.001Z</time></trkpt><trkpt lat="40.74035732564391" lon="8.969223356861455"><ele>391.0</ele><time>2026-05-01T07:07:10.001Z</time></trkpt><trkpt lat="40.740425997481275" lon="8.969145837563191"><ele>393.5</ele><time>2026-05-01T07:07:11.001Z</time></trkpt><trkpt lat="40.74047352419656" lon="8.969064918382278"><ele>396.0</ele><time>2026-05-01T07:07:12.001Z</time></trkpt><trkpt lat="40.74049856994427" lon="8.968972260072398"><ele>398.49999999999994</ele><time>2026-05-01T07:07:13.001Z</time></trkpt><trkpt lat="40.74050026981149" lon="8.968872772762678"><ele>401.0</ele><time>2026-05-01T07:07:14.001Z</time></trkpt><trkpt lat="40.74048743376031" lon="8.968747270105549"><ele>401.0</ele><time>2026-05-01T07:07:15.001Z</time></trkpt><trkpt lat="40.740463747611294" lon="8.968608512005543"><ele>401.0</ele><time>2026-05-01T07:07:16.001Z</time></trkpt><trkpt lat="40.7404250164416" lon="8.968460142405347"><ele>401.0</ele><time>2026-05-01T07:07:17.001Z</time></trkpt><trkpt lat="40.740394443021124" lon="8.968320373065328"><ele>401.0</ele><time>2026-05-01T07:07:18.001Z</time></trkpt><trkpt lat="40.74036631900102" lon="8.968184986980903"><ele>401.0</ele><time>2026-05-01T07:07:19.001Z</time></trkpt><trkpt lat="40.740356276464254" lon="8.968072854381713"><ele>399.99999999999994</ele><time>2026-05-01T07:07:20.001Z</time></trkpt><trkpt lat="40.74036901793422" lon="8.96797818523021"><ele>399.0</ele><time>2026-05-01T07:07:21.001Z</time></trkpt><trkpt lat="40.74041212587615" lon="8.9678960808128"><ele>398.0</ele><time>2026-05-01T07:07:22.001Z</time></trkpt><trkpt lat="40.740478681527044" lon="8.967837009646404"><ele>397.0</ele><time>2026-05-01T07:07:23.001Z</time></trkpt><trkpt lat="40.740566630383434" lon="8.96782819721612"><ele>395.99999999999994</ele><time>2026-05-01T07:07:24.001Z</time></trkpt><trkpt lat="40.740663810080775" lon="8.967796761555295"><ele>395.0</ele><time>2026-05-01T07:07:25.001Z</time></trkpt><trkpt lat="40.74077243042846" lon="8.967739709933918"><ele>395.0</ele><time>2026-05-01T07:07:26.001Z</time></trkpt><trkpt lat="40.74088792868697" lon="8.967702047668256"><ele>395.0</ele><time>2026-05-01T07:07:27.001Z</time></trkpt><trkpt lat="40.740992202759465" lon="8.967636699603961"><ele>395.0</ele><time>2026-05-01T07:07:28.001Z</time></trkpt><trkpt lat="40.74108117026756" lon="8.967553670880056"><ele>395.0</ele><time>2026-05-01T07:07:29.001Z</time></trkpt><trkpt lat="40.74115723755713" lon="8.967434871171362"><ele>398.8</ele><time>2026-05-01T07:07:30.001Z</time></trkpt><trkpt lat="40.74121936187154" lon="8.967313337245404"><ele>402.6</ele><time>2026-05-01T07:07:31.001Z</time></trkpt><trkpt lat="40.74126946756779" lon="8.967183789372518"><ele>406.4</ele><time>2026-05-01T07:07:32.001Z</time></trkpt><trkpt lat="40.74132134218771" lon="8.967056965925284"><ele>410.2</ele><time>2026-05-01T07:07:33.001Z</time></trkpt><trkpt lat="40.741380358207195" lon="8.966939602767292"><ele>414.0</ele><time>2026-05-01T07:07:34.001Z</time></trkpt><trkpt lat="40.741452436498555" lon="8.966846773085777"><ele>414.0</ele><time>2026-05-01T07:07:35.001Z</time></trkpt><trkpt lat="40.74153912271051" lon="8.966764753199561"><ele>414.0</ele><time>2026-05-01T07:07:36.001Z</time></trkpt><trkpt lat="40.74163089300565" lon="8.96668433974503"><ele>414.0</ele><time>2026-05-01T07:07:37.001Z</time></trkpt><trkpt lat="40.74171242263547" lon="8.96660911232468"><ele>414.0</ele><time>2026-05-01T07:07:38.001Z</time></trkpt><trkpt lat="40.74179862647533" lon="8.966532098688324"><ele>414.0</ele><time>2026-05-01T07:07:39.001Z</time></trkpt><trkpt lat="40.74188295403119" lon="8.966458519822524"><ele>412.79999999999995</ele><time>2026-05-01T07:07:40.001Z</time></trkpt><trkpt lat="40.74195178547802" lon="8.966409985606768"><ele>411.59999999999997</ele><time>2026-05-01T07:07:41.001Z</time></trkpt><trkpt lat="40.74207563772035" lon="8.966367207158052"><ele>410.4</ele><time>2026-05-01T07:07:43.001Z</time></trkpt><trkpt lat="40.74213842845768" lon="8.966332165395412"><ele>409.2</ele><time>2026-05-01T07:07:44.001Z</time></trkpt><trkpt lat="40.74225091811881" lon="8.966253937778166"><ele>408.0</ele><time>2026-05-01T07:07:46.001Z</time></trkpt><trkpt lat="40.742305891874096" lon="8.966212664487982"><ele>408.0</ele><time>2026-05-01T07:07:47.001Z</time></trkpt><trkpt lat="40.74236549577689" lon="8.966165463069368"><ele>408.0</ele><time>2026-05-01T07:07:48.001Z</time></trkpt><trkpt lat="40.74242678941692" lon="8.966114843949452"><ele>408.0</ele><time>2026-05-01T07:07:49.001Z</time></trkpt><trkpt lat="40.74248791239835" lon="8.966060010824739"><ele>408.0</ele><time>2026-05-01T07:07:50.001Z</time></trkpt><trkpt lat="40.74254007531471" lon="8.965985794476167"><ele>408.0</ele><time>2026-05-01T07:07:51.001Z</time></trkpt><trkpt lat="40.7425943826133" lon="8.965921996246841"><ele>408.0</ele><time>2026-05-01T07:07:52.001Z</time></trkpt><trkpt lat="40.742655971958854" lon="8.965850630168566"><ele>408.0</ele><time>2026-05-01T07:07:53.001Z</time></trkpt><trkpt lat="40.74271982955991" lon="8.965776358230983"><ele>409.5</ele><time>2026-05-01T07:07:54.001Z</time></trkpt><trkpt lat="40.74279460464952" lon="8.965729555569634"><ele>411.0</ele><time>2026-05-01T07:07:55.001Z</time></trkpt><trkpt lat="40.742867314784746" lon="8.965671294590392"><ele>412.5</ele><time>2026-05-01T07:07:56.001Z</time></trkpt><trkpt lat="40.742941196642526" lon="8.965624381657388"><ele>414.0</ele><time>2026-05-01T07:07:57.001Z</time></trkpt><trkpt lat="40.743018294403356" lon="8.965591118041003"><ele>415.5</ele><time>2026-05-01T07:07:58.001Z</time></trkpt><trkpt lat="40.74308812164575" lon="8.965532286914085"><ele>417.0</ele><time>2026-05-01T07:07:59.001Z</time></trkpt><trkpt lat="40.743164027944815" lon="8.965495843707462"><ele>417.0</ele><time>2026-05-01T07:08:00.001Z</time></trkpt><trkpt lat="40.7432432115693" lon="8.965455507604833"><ele>417.0</ele><time>2026-05-01T07:08:01.001Z</time></trkpt><trkpt lat="40.743322523852704" lon="8.965412188672925"><ele>417.0</ele><time>2026-05-01T07:08:02.001Z</time></trkpt><trkpt lat="40.74339695049243" lon="8.965355177559871"><ele>417.0</ele><time>2026-05-01T07:08:03.001Z</time></trkpt><trkpt lat="40.74346230596629" lon="8.96528878883737"><ele>417.0</ele><time>2026-05-01T07:08:04.001Z</time></trkpt><trkpt lat="40.74353103155352" lon="8.965214667795445"><ele>417.0</ele><time>2026-05-01T07:08:05.001Z</time></trkpt><trkpt lat="40.743614794915565" lon="8.965130174948118"><ele>418.5</ele><time>2026-05-01T07:08:06.001Z</time></trkpt><trkpt lat="40.74369275745578" lon="8.96505237776392"><ele>420.0</ele><time>2026-05-01T07:08:07.001Z</time></trkpt><trkpt lat="40.74377307208516" lon="8.964992174999665"><ele>421.5</ele><time>2026-05-01T07:08:08.001Z</time></trkpt><trkpt lat="40.74384621145545" lon="8.964943850004374"><ele>423.0</ele><time>2026-05-01T07:08:09.001Z</time></trkpt><trkpt lat="40.74392874964412" lon="8.964924982961783"><ele>424.5</ele><time>2026-05-01T07:08:10.001Z</time></trkpt><trkpt lat="40.74400445762996" lon="8.964930852446287"><ele>426.0</ele><time>2026-05-01T07:08:11.001Z</time></trkpt><trkpt lat="40.74408464380189" lon="8.964937295690522"><ele>426.0</ele><time>2026-05-01T07:08:12.001Z</time></trkpt><trkpt lat="40.74417359021311" lon="8.964907026438075"><ele>426.0</ele><time>2026-05-01T07:08:13.001Z</time></trkpt><trkpt lat="40.74426999945986" lon="8.964874688155376"><ele>426.0</ele><time>2026-05-01T07:08:14.001Z</time></trkpt><trkpt lat="40.7443654096338" lon="8.964857939510688"><ele>426.0</ele><time>2026-05-01T07:08:15.001Z</time></trkpt><trkpt lat="40.74445992025371" lon="8.964859489296122"><ele>426.0</ele><time>2026-05-01T07:08:16.001Z</time></trkpt><trkpt lat="40.74455396977114" lon="8.964879337340852"><ele>428.8</ele><time>2026-05-01T07:08:17.001Z</time></trkpt><trkpt lat="40.74464494976892" lon="8.964913195371496"><ele>431.6</ele><time>2026-05-01T07:08:18.001Z</time></trkpt><trkpt lat="40.74471702891559" lon="8.964952630621799"><ele>434.4</ele><time>2026-05-01T07:08:19.001Z</time></trkpt><trkpt lat="40.744790144732185" lon="8.964957127463304"><ele>437.2</ele><time>2026-05-01T07:08:21.001Z</time></trkpt><trkpt lat="40.744863708371085" lon="8.964857730343088"><ele>440.0</ele><time>2026-05-01T07:08:23.001Z</time></trkpt><trkpt lat="40.74496333567016" lon="8.964710599629294"><ele>440.0</ele><time>2026-05-01T07:08:25.001Z</time></trkpt><trkpt lat="40.74502415727285" lon="8.96460989156342"><ele>440.0</ele><time>2026-05-01T07:08:26.001Z</time></trkpt><trkpt lat="40.74508635092221" lon="8.96449423014982"><ele>440.0</ele><time>2026-05-01T07:08:27.001Z</time></trkpt><trkpt lat="40.745156638385474" lon="8.96440215871002"><ele>440.0</ele><time>2026-05-01T07:08:28.001Z</time></trkpt><trkpt lat="40.74522724377874" lon="8.964288732073967"><ele>440.0</ele><time>2026-05-01T07:08:29.001Z</time></trkpt><trkpt lat="40.745290894085024" lon="8.964172155828614"><ele>440.0</ele><time>2026-05-01T07:08:30.001Z</time></trkpt><trkpt lat="40.7453452602139" lon="8.964037307631543"><ele>440.0</ele><time>2026-05-01T07:08:31.001Z</time></trkpt><trkpt lat="40.74538156530682" lon="8.963910372196628"><ele>440.0</ele><time>2026-05-01T07:08:32.001Z</time></trkpt><trkpt lat="40.74542346165918" lon="8.96381010655357"><ele>440.0</ele><time>2026-05-01T07:08:33.001Z</time></trkpt><trkpt lat="40.74547357085083" lon="8.963720132654233"><ele>440.0</ele><time>2026-05-01T07:08:34.001Z</time></trkpt><trkpt lat="40.74554283838864" lon="8.963661238341771"><ele>439.99999999999994</ele><time>2026-05-01T07:08:35.001Z</time></trkpt><trkpt lat="40.74561233829355" lon="8.96362514156711"><ele>440.0</ele><time>2026-05-01T07:08:36.001Z</time></trkpt><trkpt lat="40.745686969484225" lon="8.963617981440846"><ele>440.0</ele><time>2026-05-01T07:08:37.001Z</time></trkpt><trkpt lat="40.745764461950486" lon="8.963609060779389"><ele>440.0</ele><time>2026-05-01T07:08:38.001Z</time></trkpt><trkpt lat="40.74584342032479" lon="8.963596603544254"><ele>439.99999999999994</ele><time>2026-05-01T07:08:39.001Z</time></trkpt><trkpt lat="40.74593648559795" lon="8.963583601047201"><ele>440.0</ele><time>2026-05-01T07:08:40.001Z</time></trkpt><trkpt lat="40.74602846979617" lon="8.963536169736322"><ele>442.99999999999994</ele><time>2026-05-01T07:08:41.001Z</time></trkpt><trkpt lat="40.74609260903304" lon="8.963467588066655"><ele>446.0</ele><time>2026-05-01T07:08:42.001Z</time></trkpt><trkpt lat="40.74615704956382" lon="8.963391418160109"><ele>449.0</ele><time>2026-05-01T07:08:43.001Z</time></trkpt><trkpt lat="40.746220399556435" lon="8.963296135965265"><ele>452.0</ele><time>2026-05-01T07:08:44.001Z</time></trkpt><trkpt lat="40.74628390025919" lon="8.963207743077911"><ele>454.99999999999994</ele><time>2026-05-01T07:08:45.001Z</time></trkpt><trkpt lat="40.746339881427396" lon="8.963116338728977"><ele>458.0</ele><time>2026-05-01T07:08:46.001Z</time></trkpt><trkpt lat="40.746398036560436" lon="8.963019831820027"><ele>458.59999999999997</ele><time>2026-05-01T07:08:47.001Z</time></trkpt><trkpt lat="40.74647248893715" lon="8.962934436035455"><ele>459.19999999999993</ele><time>2026-05-01T07:08:48.001Z</time></trkpt><trkpt lat="40.74655577756837" lon="8.96287530172157"><ele>459.8</ele><time>2026-05-01T07:08:49.001Z</time></trkpt><trkpt lat="40.74663502027476" lon="8.962821167223664"><ele>460.4</ele><time>2026-05-01T07:08:50.001Z</time></trkpt><trkpt lat="40.74671432112402" lon="8.962777963618707"><ele>461.0</ele><time>2026-05-01T07:08:51.001Z</time></trkpt><trkpt lat="40.746794309927495" lon="8.96273419089826"><ele>460.99999999999994</ele><time>2026-05-01T07:08:52.001Z</time></trkpt><trkpt lat="40.7468734338354" lon="8.962698883238277"><ele>461.0</ele><time>2026-05-01T07:08:53.001Z</time></trkpt><trkpt lat="40.74695324092287" lon="8.962691148817665"><ele>461.0</ele><time>2026-05-01T07:08:54.001Z</time></trkpt><trkpt lat="40.74702751405747" lon="8.962678638905267"><ele>461.0</ele><time>2026-05-01T07:08:55.001Z</time></trkpt><trkpt lat="40.747100970517074" lon="8.96267185121757"><ele>460.99999999999994</ele><time>2026-05-01T07:08:56.001Z</time></trkpt><trkpt lat="40.74718709857494" lon="8.962666468923782"><ele>461.0</ele><time>2026-05-01T07:08:57.001Z</time></trkpt><trkpt lat="40.74727357678339" lon="8.962631181895189"><ele>465.0</ele><time>2026-05-01T07:08:58.001Z</time></trkpt><trkpt lat="40.74735389299456" lon="8.962596941410027"><ele>469.0</ele><time>2026-05-01T07:08:59.001Z</time></trkpt><trkpt lat="40.74744967299204" lon="8.962547998079339"><ele>473.0</ele><time>2026-05-01T07:09:00.001Z</time></trkpt><trkpt lat="40.74754349850275" lon="8.962482957499168"><ele>477.0</ele><time>2026-05-01T07:09:01.001Z</time></trkpt><trkpt lat="40.74762528415345" lon="8.96241518291403"><ele>481.0</ele><time>2026-05-01T07:09:02.001Z</time></trkpt><trkpt lat="40.74769661522676" lon="8.962340650797254"><ele>485.00000000000006</ele><time>2026-05-01T07:09:03.001Z</time></trkpt><trkpt lat="40.747755846495345" lon="8.962269035950046"><ele>489.0</ele><time>2026-05-01T07:09:04.001Z</time></trkpt><trkpt lat="40.74784606581612" lon="8.962209869878453"><ele>493.0</ele><time>2026-05-01T07:09:06.001Z</time></trkpt><trkpt lat="40.74790383078099" lon="8.962283501594785"><ele>497.0</ele><time>2026-05-01T07:09:08.001Z</time></trkpt><trkpt lat="40.74789569331737" lon="8.962423408097635"><ele>501.00000000000006</ele><time>2026-05-01T07:09:10.001Z</time></trkpt><trkpt lat="40.74786532008943" lon="8.962507944248404"><ele>505.0</ele><time>2026-05-01T07:09:11.001Z</time></trkpt><trkpt lat="40.74783913577521" lon="8.962595647851574"><ele>506.50000000000006</ele><time>2026-05-01T07:09:12.001Z</time></trkpt><trkpt lat="40.74780181328483" lon="8.962685650617717"><ele>508.0</ele><time>2026-05-01T07:09:13.001Z</time></trkpt><trkpt lat="40.74774204025472" lon="8.962802393092911"><ele>509.5</ele><time>2026-05-01T07:09:14.001Z</time></trkpt><trkpt lat="40.74769425040494" lon="8.962889577404932"><ele>511.0</ele><time>2026-05-01T07:09:15.001Z</time></trkpt><trkpt lat="40.74763012269152" lon="8.962962969766433"><ele>512.5</ele><time>2026-05-01T07:09:16.001Z</time></trkpt><trkpt lat="40.74755789171577" lon="8.96302552488578"><ele>514.0</ele><time>2026-05-01T07:09:17.001Z</time></trkpt><trkpt lat="40.74747066083612" lon="8.963087562191774"><ele>509.33333333333337</ele><time>2026-05-01T07:09:18.001Z</time></trkpt><trkpt lat="40.7473967807049" lon="8.963149967585474"><ele>504.6666666666667</ele><time>2026-05-01T07:09:19.001Z</time></trkpt><trkpt lat="40.747316787716684" lon="8.963195055573987"><ele>500.0</ele><time>2026-05-01T07:09:20.001Z</time></trkpt><trkpt lat="40.74724686792183" lon="8.963251277874608"><ele>495.33333333333337</ele><time>2026-05-01T07:09:21.001Z</time></trkpt><trkpt lat="40.74717566575059" lon="8.963305969811357"><ele>490.6666666666667</ele><time>2026-05-01T07:09:22.001Z</time></trkpt><trkpt lat="40.74710487466515" lon="8.963367127575268"><ele>486.0</ele><time>2026-05-01T07:09:23.001Z</time></trkpt><trkpt lat="40.74705047509279" lon="8.963436685045373"><ele>485.6666666666667</ele><time>2026-05-01T07:09:24.001Z</time></trkpt><trkpt lat="40.74701502845331" lon="8.963516109801075"><ele>485.33333333333337</ele><time>2026-05-01T07:09:25.001Z</time></trkpt><trkpt lat="40.74698395409448" lon="8.963668825320145"><ele>485.0</ele><time>2026-05-01T07:09:27.001Z</time></trkpt><trkpt lat="40.74700466593186" lon="8.963803408760702"><ele>484.6666666666667</ele><time>2026-05-01T07:09:29.001Z</time></trkpt><trkpt lat="40.74706078537886" lon="8.963853082933603"><ele>484.33333333333337</ele><time>2026-05-01T07:09:30.001Z</time></trkpt><trkpt lat="40.7471343341412" lon="8.963877579858803"><ele>484.0</ele><time>2026-05-01T07:09:31.001Z</time></trkpt><trkpt lat="40.74721546898838" lon="8.963875797097067"><ele>484.00000000000006</ele><time>2026-05-01T07:09:32.001Z</time></trkpt><trkpt lat="40.74729721502272" lon="8.963863014620634"><ele>484.0</ele><time>2026-05-01T07:09:33.001Z</time></trkpt><trkpt lat="40.74737925200738" lon="8.96385600301487"><ele>484.0</ele><time>2026-05-01T07:09:34.001Z</time></trkpt><trkpt lat="40.74746001605557" lon="8.963852801530154"><ele>484.0</ele><time>2026-05-01T07:09:35.001Z</time></trkpt><trkpt lat="40.74753532180341" lon="8.963853005965996"><ele>484.00000000000006</ele><time>2026-05-01T07:09:36.001Z</time></trkpt><trkpt lat="40.747604780482014" lon="8.96385032491554"><ele>484.0</ele><time>2026-05-01T07:09:37.001Z</time></trkpt><trkpt lat="40.747678103657435" lon="8.963907244854571"><ele>489.6666666666667</ele><time>2026-05-01T07:09:38.001Z</time></trkpt><trkpt lat="40.74773900798978" lon="8.963986670833405"><ele>495.33333333333337</ele><time>2026-05-01T07:09:39.001Z</time></trkpt><trkpt lat="40.747797617374125" lon="8.964071621821533"><ele>501.0</ele><time>2026-05-01T07:09:40.001Z</time></trkpt><trkpt lat="40.74783183460062" lon="8.96417877022969"><ele>506.66666666666663</ele><time>2026-05-01T07:09:41.001Z</time></trkpt><trkpt lat="40.74780231514563" lon="8.96429896678216"><ele>512.3333333333333</ele><time>2026-05-01T07:09:42.002Z</time></trkpt><trkpt lat="40.74778328477111" lon="8.964398328573466"><ele>518.0</ele><time>2026-05-01T07:09:43.002Z</time></trkpt><trkpt lat="40.74778072382067" lon="8.964494989859983"><ele>518.0</ele><time>2026-05-01T07:09:44.002Z</time></trkpt><trkpt lat="40.747785282211645" lon="8.964613264770291"><ele>518.0</ele><time>2026-05-01T07:09:45.002Z</time></trkpt><trkpt lat="40.74782158408399" lon="8.964719132748304"><ele>518.0</ele><time>2026-05-01T07:09:46.002Z</time></trkpt><trkpt lat="40.74786726759004" lon="8.964795080828445"><ele>518.0</ele><time>2026-05-01T07:09:47.002Z</time></trkpt><trkpt lat="40.74792134735746" lon="8.964861880739456"><ele>518.0</ele><time>2026-05-01T07:09:48.002Z</time></trkpt><trkpt lat="40.74796953817157" lon="8.96495250428159"><ele>518.0</ele><time>2026-05-01T07:09:49.002Z</time></trkpt><trkpt lat="40.7479882467604" lon="8.96507764418052"><ele>516.0</ele><time>2026-05-01T07:09:50.002Z</time></trkpt><trkpt lat="40.748011349067816" lon="8.965204004121171"><ele>514.0</ele><time>2026-05-01T07:09:51.002Z</time></trkpt><trkpt lat="40.74803876967602" lon="8.965312112958067"><ele>512.0</ele><time>2026-05-01T07:09:52.002Z</time></trkpt><trkpt lat="40.748072264863865" lon="8.96540578220558"><ele>510.0</ele><time>2026-05-01T07:09:53.002Z</time></trkpt><trkpt lat="40.748112853270094" lon="8.965480169065719"><ele>507.99999999999994</ele><time>2026-05-01T07:09:54.002Z</time></trkpt><trkpt lat="40.74816591122044" lon="8.96554697455433"><ele>506.0</ele><time>2026-05-01T07:09:55.002Z</time></trkpt><trkpt lat="40.74823862248666" lon="8.965600224723053"><ele>506.0</ele><time>2026-05-01T07:09:56.002Z</time></trkpt><trkpt lat="40.74829848338009" lon="8.965653056158624"><ele>506.0</ele><time>2026-05-01T07:09:57.002Z</time></trkpt><trkpt lat="40.748342928296644" lon="8.965797533882713"><ele>506.0</ele><time>2026-05-01T07:09:59.002Z</time></trkpt><trkpt lat="40.74833102851258" lon="8.965974656844862"><ele>506.0</ele><time>2026-05-01T07:10:01.002Z</time></trkpt><trkpt lat="40.748357216577986" lon="8.966071451854566"><ele>506.0</ele><time>2026-05-01T07:10:02.002Z</time></trkpt><trkpt lat="40.74839712659017" lon="8.966158164193123"><ele>506.8333333333333</ele><time>2026-05-01T07:10:03.002Z</time></trkpt><trkpt lat="40.74845239511416" lon="8.966221407163138"><ele>507.66666666666663</ele><time>2026-05-01T07:10:04.002Z</time></trkpt><trkpt lat="40.74851486436632" lon="8.966255383169132"><ele>508.5</ele><time>2026-05-01T07:10:05.002Z</time></trkpt><trkpt lat="40.74858745529012" lon="8.966276717740636"><ele>509.33333333333337</ele><time>2026-05-01T07:10:06.002Z</time></trkpt><trkpt lat="40.74872057789996" lon="8.966314101793046"><ele>510.1666666666667</ele><time>2026-05-01T07:10:08.002Z</time></trkpt><trkpt lat="40.748790015661754" lon="8.966329058017303"><ele>511.0</ele><time>2026-05-01T07:10:09.002Z</time></trkpt><trkpt lat="40.748865266332686" lon="8.966369307366051"><ele>511.0</ele><time>2026-05-01T07:10:10.002Z</time></trkpt><trkpt lat="40.74893667073851" lon="8.966391734051495"><ele>511.0</ele><time>2026-05-01T07:10:11.002Z</time></trkpt><trkpt lat="40.7490126946653" lon="8.966386430123286"><ele>511.0</ele><time>2026-05-01T07:10:12.002Z</time></trkpt><trkpt lat="40.74908560331399" lon="8.966355771211314"><ele>511.0</ele><time>2026-05-01T07:10:13.002Z</time></trkpt><trkpt lat="40.749144950939005" lon="8.966322370949477"><ele>511.0</ele><time>2026-05-01T07:10:14.002Z</time></trkpt><trkpt lat="40.74920981913087" lon="8.966305569055672"><ele>511.0</ele><time>2026-05-01T07:10:15.002Z</time></trkpt><trkpt lat="40.74928566394357" lon="8.966321342390195"><ele>511.0</ele><time>2026-05-01T07:10:16.002Z</time></trkpt><trkpt lat="40.749348212638914" lon="8.966434021361108"><ele>512.6666666666667</ele><time>2026-05-01T07:10:18.002Z</time></trkpt><trkpt lat="40.74938148063662" lon="8.9666037821209"><ele>514.3333333333334</ele><time>2026-05-01T07:10:20.002Z</time></trkpt><trkpt lat="40.74940137224612" lon="8.966695390544428"><ele>516.0</ele><time>2026-05-01T07:10:21.002Z</time></trkpt><trkpt lat="40.749448013547536" lon="8.966765371447945"><ele>517.6666666666666</ele><time>2026-05-01T07:10:22.002Z</time></trkpt><trkpt lat="40.749512543553294" lon="8.966829662191603"><ele>519.3333333333333</ele><time>2026-05-01T07:10:23.002Z</time></trkpt><trkpt lat="40.74957608952039" lon="8.966889956465671"><ele>521.0</ele><time>2026-05-01T07:10:24.002Z</time></trkpt><trkpt lat="40.74965729550223" lon="8.966943587677298"><ele>521.0</ele><time>2026-05-01T07:10:25.002Z</time></trkpt><trkpt lat="40.74974796650135" lon="8.96701754553415"><ele>521.0</ele><time>2026-05-01T07:10:26.002Z</time></trkpt><trkpt lat="40.749815504338244" lon="8.967068891190257"><ele>521.0</ele><time>2026-05-01T07:10:27.002Z</time></trkpt><trkpt lat="40.74990219951973" lon="8.967041240682782"><ele>521.0</ele><time>2026-05-01T07:10:29.002Z</time></trkpt><trkpt lat="40.749993597056694" lon="8.966910134295347"><ele>521.0</ele><time>2026-05-01T07:10:31.002Z</time></trkpt><trkpt lat="40.750051728019734" lon="8.966823938952155"><ele>521.0</ele><time>2026-05-01T07:10:32.002Z</time></trkpt><trkpt lat="40.75012200771312" lon="8.966773428158806"><ele>521.0</ele><time>2026-05-01T07:10:33.002Z</time></trkpt><trkpt lat="40.75022394478715" lon="8.966772589550336"><ele>521.0</ele><time>2026-05-01T07:10:35.002Z</time></trkpt><trkpt lat="40.750312641914526" lon="8.966912824452278"><ele>521.0</ele><time>2026-05-01T07:10:37.002Z</time></trkpt><trkpt lat="40.75035456802587" lon="8.967014052671866"><ele>521.0</ele><time>2026-05-01T07:10:38.002Z</time></trkpt><trkpt lat="40.75041269272863" lon="8.96712207304378"><ele>525.0</ele><time>2026-05-01T07:10:39.002Z</time></trkpt><trkpt lat="40.750463612894535" lon="8.96722227510361"><ele>529.0</ele><time>2026-05-01T07:10:40.002Z</time></trkpt><trkpt lat="40.750502687067836" lon="8.967319589268195"><ele>533.0</ele><time>2026-05-01T07:10:41.002Z</time></trkpt><trkpt lat="40.75055434714764" lon="8.967431412362414"><ele>537.0</ele><time>2026-05-01T07:10:42.002Z</time></trkpt><trkpt lat="40.750602561073904" lon="8.96753536395775"><ele>541.0</ele><time>2026-05-01T07:10:43.002Z</time></trkpt><trkpt lat="40.75066221910199" lon="8.967634722271914"><ele>542.3333333333334</ele><time>2026-05-01T07:10:44.002Z</time></trkpt><trkpt lat="40.75072134112875" lon="8.967718949510262"><ele>543.6666666666667</ele><time>2026-05-01T07:10:45.002Z</time></trkpt><trkpt lat="40.75076476652821" lon="8.96778096066771"><ele>545.0</ele><time>2026-05-01T07:10:46.002Z</time></trkpt><trkpt lat="40.75077176456485" lon="8.967891350599414"><ele>546.3333333333334</ele><time>2026-05-01T07:10:48.002Z</time></trkpt><trkpt lat="40.75070307888899" lon="8.967953417055647"><ele>547.6666666666666</ele><time>2026-05-01T07:10:50.002Z</time></trkpt><trkpt lat="40.75057871718253" lon="8.967957027749529"><ele>549.0</ele><time>2026-05-01T07:10:52.002Z</time></trkpt><trkpt lat="40.7505042193208" lon="8.967968507731467"><ele>549.0</ele><time>2026-05-01T07:10:53.002Z</time></trkpt><trkpt lat="40.75043201108953" lon="8.967929630543487"><ele>549.0</ele><time>2026-05-01T07:10:54.002Z</time></trkpt><trkpt lat="40.75035995719522" lon="8.967925814333482"><ele>549.0</ele><time>2026-05-01T07:10:55.002Z</time></trkpt><trkpt lat="40.750289204432214" lon="8.967950559572486"><ele>549.0</ele><time>2026-05-01T07:10:56.002Z</time></trkpt><trkpt lat="40.75021918448293" lon="8.968000904836106"><ele>549.0</ele><time>2026-05-01T07:10:57.002Z</time></trkpt><trkpt lat="40.750161761875866" lon="8.968075481712336"><ele>549.0</ele><time>2026-05-01T07:10:58.002Z</time></trkpt><trkpt lat="40.750107982743415" lon="8.96815514507999"><ele>550.8</ele><time>2026-05-01T07:10:59.002Z</time></trkpt><trkpt lat="40.75004298235652" lon="8.968244834231427"><ele>552.5999999999999</ele><time>2026-05-01T07:11:00.002Z</time></trkpt><trkpt lat="40.74997050057709" lon="8.968326009460409"><ele>554.4</ele><time>2026-05-01T07:11:01.002Z</time></trkpt><trkpt lat="40.749889931343716" lon="8.968397729728053"><ele>556.1999999999999</ele><time>2026-05-01T07:11:02.002Z</time></trkpt><trkpt lat="40.749815124493495" lon="8.968435678294805"><ele>558.0</ele><time>2026-05-01T07:11:03.002Z</time></trkpt><trkpt lat="40.749726460093704" lon="8.968472497920184"><ele>558.0</ele><time>2026-05-01T07:11:04.002Z</time></trkpt><trkpt lat="40.749643187064876" lon="8.968472599225525"><ele>558.0</ele><time>2026-05-01T07:11:05.002Z</time></trkpt><trkpt lat="40.74956072105326" lon="8.96846090247811"><ele>558.0</ele><time>2026-05-01T07:11:06.002Z</time></trkpt><trkpt lat="40.74947076070199" lon="8.968460125064917"><ele>558.0</ele><time>2026-05-01T07:11:07.002Z</time></trkpt><trkpt lat="40.749372971959446" lon="8.968478926520685"><ele>558.0</ele><time>2026-05-01T07:11:08.002Z</time></trkpt><trkpt lat="40.74927772845404" lon="8.968498728859005"><ele>556.6</ele><time>2026-05-01T07:11:09.002Z</time></trkpt><trkpt lat="40.7491767173385" lon="8.96852384060405"><ele>555.1999999999999</ele><time>2026-05-01T07:11:10.002Z</time></trkpt><trkpt lat="40.74907596491369" lon="8.968540018739512"><ele>553.8</ele><time>2026-05-01T07:11:11.002Z</time></trkpt><trkpt lat="40.74897510503241" lon="8.968564575113863"><ele>552.4</ele><time>2026-05-01T07:11:12.002Z</time></trkpt><trkpt lat="40.74888044785508" lon="8.968584191390129"><ele>551.0</ele><time>2026-05-01T07:11:13.002Z</time></trkpt><trkpt lat="40.748791349704334" lon="8.968567191217685"><ele>550.9999999999999</ele><time>2026-05-01T07:11:14.002Z</time></trkpt><trkpt lat="40.74870953693658" lon="8.968573733718973"><ele>551.0</ele><time>2026-05-01T07:11:15.002Z</time></trkpt><trkpt lat="40.748644566745874" lon="8.968608977658683"><ele>551.0</ele><time>2026-05-01T07:11:16.002Z</time></trkpt><trkpt lat="40.7485906021877" lon="8.96866611855192"><ele>551.0</ele><time>2026-05-01T07:11:17.002Z</time></trkpt><trkpt lat="40.74854731401615" lon="8.968744806622196"><ele>551.0</ele><time>2026-05-01T07:11:18.002Z</time></trkpt><trkpt lat="40.74851431973101" lon="8.968835128491849"><ele>550.9999999999999</ele><time>2026-05-01T07:11:19.002Z</time></trkpt><trkpt lat="40.748488944832424" lon="8.968930041461904"><ele>551.0</ele><time>2026-05-01T07:11:20.002Z</time></trkpt><trkpt lat="40.748478378182995" lon="8.969049403362225"><ele>550.2</ele><time>2026-05-01T07:11:21.002Z</time></trkpt><trkpt lat="40.748462974579205" lon="8.969175580981497"><ele>549.4000000000001</ele><time>2026-05-01T07:11:22.002Z</time></trkpt><trkpt lat="40.748449062232424" lon="8.969309810221715"><ele>548.6</ele><time>2026-05-01T07:11:23.002Z</time></trkpt><trkpt lat="40.748428130945754" lon="8.969451443407113"><ele>547.8000000000001</ele><time>2026-05-01T07:11:24.002Z</time></trkpt><trkpt lat="40.74839804637643" lon="8.969604867148206"><ele>547.0</ele><time>2026-05-01T07:11:25.002Z</time></trkpt><trkpt lat="40.7483602083228" lon="8.969737085041357"><ele>547.0</ele><time>2026-05-01T07:11:26.002Z</time></trkpt><trkpt lat="40.74830091709651" lon="8.969862370115488"><ele>547.0</ele><time>2026-05-01T07:11:27.002Z</time></trkpt><trkpt lat="40.74824300367947" lon="8.969974333935653"><ele>547.0</ele><time>2026-05-01T07:11:28.002Z</time></trkpt><trkpt lat="40.74820948487114" lon="8.970089861753227"><ele>547.0</ele><time>2026-05-01T07:11:30.002Z</time></trkpt><trkpt lat="40.74827383946102" lon="8.970117397597166"><ele>547.0</ele><time>2026-05-01T07:11:33.002Z</time></trkpt><trkpt lat="40.74834133803705" lon="8.970057010275458"><ele>547.0</ele><time>2026-05-01T07:11:35.002Z</time></trkpt><trkpt lat="40.74839367740882" lon="8.969997848960324"><ele>547.0</ele><time>2026-05-01T07:11:36.002Z</time></trkpt><trkpt lat="40.748460099391245" lon="8.96991193711658"><ele>547.0</ele><time>2026-05-01T07:11:37.002Z</time></trkpt><trkpt lat="40.748543090830914" lon="8.969824676927503"><ele>547.0</ele><time>2026-05-01T07:11:38.002Z</time></trkpt><trkpt lat="40.74863208435588" lon="8.969726185998915"><ele>547.0</ele><time>2026-05-01T07:11:39.002Z</time></trkpt><trkpt lat="40.74871787888915" lon="8.969632336210351"><ele>549.6</ele><time>2026-05-01T07:11:40.002Z</time></trkpt><trkpt lat="40.748810642655464" lon="8.96954360712461"><ele>552.2</ele><time>2026-05-01T07:11:41.002Z</time></trkpt><trkpt lat="40.74890628989559" lon="8.9694640523444"><ele>554.8</ele><time>2026-05-01T07:11:42.002Z</time></trkpt><trkpt lat="40.74900094382383" lon="8.969393146927569"><ele>557.4</ele><time>2026-05-01T07:11:43.002Z</time></trkpt><trkpt lat="40.749099075606004" lon="8.969339465691556"><ele>560.0</ele><time>2026-05-01T07:11:44.002Z</time></trkpt><trkpt lat="40.74919879884139" lon="8.969310250592288"><ele>560.0</ele><time>2026-05-01T07:11:45.002Z</time></trkpt><trkpt lat="40.749300542366925" lon="8.969291192994527"><ele>560.0</ele><time>2026-05-01T07:11:46.002Z</time></trkpt><trkpt lat="40.74940580901499" lon="8.969278158449768"><ele>560.0</ele><time>2026-05-01T07:11:47.002Z</time></trkpt><trkpt lat="40.7495008603273" lon="8.969255530658755"><ele>560.0</ele><time>2026-05-01T07:11:48.002Z</time></trkpt><trkpt lat="40.74960340716416" lon="8.969235514060278"><ele>560.0</ele><time>2026-05-01T07:11:49.002Z</time></trkpt><trkpt lat="40.74969357845769" lon="8.96923325353908"><ele>559.6666666666666</ele><time>2026-05-01T07:11:50.002Z</time></trkpt><trkpt lat="40.749772061021595" lon="8.969235273318132"><ele>559.3333333333333</ele><time>2026-05-01T07:11:51.002Z</time></trkpt><trkpt lat="40.74984949458201" lon="8.969231982454854"><ele>559.0</ele><time>2026-05-01T07:11:52.002Z</time></trkpt><trkpt lat="40.74994118502412" lon="8.969227332051048"><ele>558.6666666666666</ele><time>2026-05-01T07:11:53.002Z</time></trkpt><trkpt lat="40.75002982270829" lon="8.96919355195233"><ele>558.3333333333334</ele><time>2026-05-01T07:11:54.002Z</time></trkpt><trkpt lat="40.75011350219811" lon="8.969147272496885"><ele>558.0</ele><time>2026-05-01T07:11:55.002Z</time></trkpt><trkpt lat="40.750183461211236" lon="8.969095869331488"><ele>559.6</ele><time>2026-05-01T07:11:56.002Z</time></trkpt><trkpt lat="40.75027146246587" lon="8.969047520693728"><ele>561.1999999999999</ele><time>2026-05-01T07:11:57.002Z</time></trkpt><trkpt lat="40.75036159636647" lon="8.968991466392154"><ele>562.8</ele><time>2026-05-01T07:11:58.002Z</time></trkpt><trkpt lat="40.75045021061933" lon="8.968972781996325"><ele>564.4</ele><time>2026-05-01T07:11:59.002Z</time></trkpt><trkpt lat="40.750541061682654" lon="8.968931627889386"><ele>566.0</ele><time>2026-05-01T07:12:00.002Z</time></trkpt><trkpt lat="40.750632886472935" lon="8.968931961077695"><ele>566.0</ele><time>2026-05-01T07:12:01.002Z</time></trkpt><trkpt lat="40.750733143338344" lon="8.968926144420232"><ele>566.0</ele><time>2026-05-01T07:12:02.002Z</time></trkpt><trkpt lat="40.750818481425796" lon="8.96891988356855"><ele>566.0</ele><time>2026-05-01T07:12:03.002Z</time></trkpt><trkpt lat="40.750920868629684" lon="8.968926020641263"><ele>566.0</ele><time>2026-05-01T07:12:04.002Z</time></trkpt><trkpt lat="40.75101945925351" lon="8.968935358669507"><ele>566.0</ele><time>2026-05-01T07:12:05.002Z</time></trkpt><trkpt lat="40.751120041538066" lon="8.968920145151799"><ele>565.6</ele><time>2026-05-01T07:12:06.002Z</time></trkpt><trkpt lat="40.75121858257471" lon="8.968906392200068"><ele>565.2</ele><time>2026-05-01T07:12:07.002Z</time></trkpt><trkpt lat="40.751302565871136" lon="8.968876484564351"><ele>564.8</ele><time>2026-05-01T07:12:08.002Z</time></trkpt><trkpt lat="40.75136604178363" lon="8.9688423781769"><ele>564.4</ele><time>2026-05-01T07:12:09.002Z</time></trkpt><trkpt lat="40.751487401444436" lon="8.96880800005252"><ele>564.0</ele><time>2026-05-01T07:12:11.002Z</time></trkpt><trkpt lat="40.751575979649566" lon="8.968812341388915"><ele>564.0</ele><time>2026-05-01T07:12:12.002Z</time></trkpt><trkpt lat="40.75167362739443" lon="8.968804101440195"><ele>564.0</ele><time>2026-05-01T07:12:13.002Z</time></trkpt><trkpt lat="40.75177848792215" lon="8.968786372451854"><ele>564.0</ele><time>2026-05-01T07:12:14.002Z</time></trkpt><trkpt lat="40.75189811438051" lon="8.968738233954602"><ele>564.0</ele><time>2026-05-01T07:12:15.002Z</time></trkpt><trkpt lat="40.75186329636527" lon="8.968816427523878"><ele>564.0</ele><time>2026-05-01T07:12:32.002Z</time></trkpt><trkpt lat="40.75178708267619" lon="8.968755911249938"><ele>564.0</ele><time>2026-05-01T07:12:33.002Z</time></trkpt><trkpt lat="40.751714409053164" lon="8.968755492015658"><ele>564.0</ele><time>2026-05-01T07:12:36.002Z</time></trkpt><trkpt lat="40.75180133996892" lon="8.968894359306823"><ele>564.0</ele><time>2026-05-01T07:12:40.002Z</time></trkpt><trkpt lat="40.75189574380991" lon="8.968925474190435"><ele>564.0</ele><time>2026-05-01T07:12:42.002Z</time></trkpt><trkpt lat="40.752009864035266" lon="8.9690029648941"><ele>564.0</ele><time>2026-05-01T07:12:44.002Z</time></trkpt><trkpt lat="40.752066006351086" lon="8.969045782872247"><ele>564.8571428571429</ele><time>2026-05-01T07:12:45.002Z</time></trkpt><trkpt lat="40.75212654995823" lon="8.96908832045818"><ele>565.7142857142857</ele><time>2026-05-01T07:12:46.002Z</time></trkpt><trkpt lat="40.75219298814023" lon="8.969120857754408"><ele>566.5714285714286</ele><time>2026-05-01T07:12:47.002Z</time></trkpt><trkpt lat="40.752262168627674" lon="8.969159087304991"><ele>567.4285714285714</ele><time>2026-05-01T07:12:48.002Z</time></trkpt><trkpt lat="40.75232861394914" lon="8.96918668062117"><ele>568.2857142857143</ele><time>2026-05-01T07:12:49.002Z</time></trkpt><trkpt lat="40.7523916851715" lon="8.969214836846117"><ele>569.1428571428571</ele><time>2026-05-01T07:12:50.002Z</time></trkpt><trkpt lat="40.752465044319344" lon="8.96922810325381"><ele>570.0</ele><time>2026-05-01T07:12:51.002Z</time></trkpt><trkpt lat="40.75253935969559" lon="8.96926551702076"><ele>567.0</ele><time>2026-05-01T07:12:52.002Z</time></trkpt><trkpt lat="40.75260521039635" lon="8.969287497092036"><ele>564.0</ele><time>2026-05-01T07:12:53.002Z</time></trkpt><trkpt lat="40.75271980130932" lon="8.969324516916728"><ele>561.0</ele><time>2026-05-01T07:12:55.002Z</time></trkpt><trkpt lat="40.7528046853302" lon="8.969427097293286"><ele>558.0</ele><time>2026-05-01T07:12:57.002Z</time></trkpt><trkpt lat="40.7528351342363" lon="8.969575596833334"><ele>555.0</ele><time>2026-05-01T07:12:59.003Z</time></trkpt><trkpt lat="40.75285104292558" lon="8.969738476191537"><ele>555.0</ele><time>2026-05-01T07:13:01.003Z</time></trkpt><trkpt lat="40.752903209289165" lon="8.969848224769919"><ele>555.0</ele><time>2026-05-01T07:13:03.003Z</time></trkpt><trkpt lat="40.753002163862845" lon="8.969848161814092"><ele>555.0</ele><time>2026-05-01T07:13:05.003Z</time></trkpt><trkpt lat="40.75310996676596" lon="8.969772859866875"><ele>555.0</ele><time>2026-05-01T07:13:07.003Z</time></trkpt><trkpt lat="40.753166923326795" lon="8.969722667934963"><ele>555.0</ele><time>2026-05-01T07:13:08.003Z</time></trkpt><trkpt lat="40.7532642077684" lon="8.969643070345077"><ele>555.0</ele><time>2026-05-01T07:13:10.003Z</time></trkpt><trkpt lat="40.75335326734557" lon="8.969576987578092"><ele>555.0</ele><time>2026-05-01T07:13:12.003Z</time></trkpt><trkpt lat="40.753417032696234" lon="8.969555461911344"><ele>555.0</ele><time>2026-05-01T07:13:14.003Z</time></trkpt><trkpt lat="40.7534815433793" lon="8.969525295176345"><ele>555.0</ele><time>2026-05-01T07:13:16.003Z</time></trkpt><trkpt lat="40.75355231003276" lon="8.969497352780165"><ele>555.0</ele><time>2026-05-01T07:13:18.003Z</time></trkpt><trkpt lat="40.75364239015515" lon="8.969477662330863"><ele>555.0</ele><time>2026-05-01T07:13:20.003Z</time></trkpt><trkpt lat="40.75371212716775" lon="8.969506149089664"><ele>557.3333333333334</ele><time>2026-05-01T07:13:23.003Z</time></trkpt><trkpt lat="40.753717162277766" lon="8.969594284095301"><ele>559.6666666666666</ele><time>2026-05-01T07:13:25.003Z</time></trkpt><trkpt lat="40.753687426309604" lon="8.969689188817325"><ele>562.0</ele><time>2026-05-01T07:13:27.003Z</time></trkpt><trkpt lat="40.753638664873584" lon="8.969804135804818"><ele>564.3333333333333</ele><time>2026-05-01T07:13:29.003Z</time></trkpt><trkpt lat="40.75359585915562" lon="8.969916185028067"><ele>566.6666666666666</ele><time>2026-05-01T07:13:31.003Z</time></trkpt><trkpt lat="40.75358399817582" lon="8.970047867396396"><ele>569.0</ele><time>2026-05-01T07:13:33.003Z</time></trkpt><trkpt lat="40.75358966477822" lon="8.970161087017225"><ele>569.0</ele><time>2026-05-01T07:13:35.003Z</time></trkpt><trkpt lat="40.753623290755286" lon="8.97028991776303"><ele>569.0</ele><time>2026-05-01T07:13:37.003Z</time></trkpt><trkpt lat="40.753673896751856" lon="8.970431972188743"><ele>569.0</ele><time>2026-05-01T07:13:39.003Z</time></trkpt><trkpt lat="40.753729718425554" lon="8.970562183156154"><ele>569.0</ele><time>2026-05-01T07:13:41.003Z</time></trkpt><trkpt lat="40.75377454886432" lon="8.970682738454128"><ele>569.0</ele><time>2026-05-01T07:13:43.003Z</time></trkpt><trkpt lat="40.753791176976726" lon="8.970808507934894"><ele>569.6</ele><time>2026-05-01T07:13:45.003Z</time></trkpt><trkpt lat="40.753770833219896" lon="8.970943476145449"><ele>570.2</ele><time>2026-05-01T07:13:47.003Z</time></trkpt><trkpt lat="40.75373145627973" lon="8.971066172108277"><ele>570.8000000000001</ele><time>2026-05-01T07:13:49.003Z</time></trkpt><trkpt lat="40.75368800193472" lon="8.971184071548322"><ele>571.4</ele><time>2026-05-01T07:13:51.003Z</time></trkpt><trkpt lat="40.75365231978191" lon="8.971284858076736"><ele>572.0</ele><time>2026-05-01T07:13:53.003Z</time></trkpt><trkpt lat="40.75362366671044" lon="8.971384732226374"><ele>572.0</ele><time>2026-05-01T07:13:55.003Z</time></trkpt><trkpt lat="40.7536098874616" lon="8.971505841720376"><ele>572.0</ele><time>2026-05-01T07:13:57.003Z</time></trkpt><trkpt lat="40.75356926932351" lon="8.971605819780313"><ele>572.0</ele><time>2026-05-01T07:13:59.003Z</time></trkpt><trkpt lat="40.7535032155562" lon="8.971652115997578"><ele>572.0</ele><time>2026-05-01T07:14:01.003Z</time></trkpt><trkpt lat="40.75340996613701" lon="8.971686314460209"><ele>572.0</ele><time>2026-05-01T07:14:03.003Z</time></trkpt><trkpt lat="40.75334249580225" lon="8.971746653868092"><ele>572.0</ele><time>2026-05-01T07:14:05.003Z</time></trkpt><trkpt lat="40.75329925579422" lon="8.97183613094686"><ele>567.0</ele><time>2026-05-01T07:14:07.003Z</time></trkpt><trkpt lat="40.7532641859204" lon="8.971937087774426"><ele>562.0</ele><time>2026-05-01T07:14:09.003Z</time></trkpt><trkpt lat="40.753219884691035" lon="8.97200386778795"><ele>557.0</ele><time>2026-05-01T07:14:12.003Z</time></trkpt><trkpt lat="40.75315380954413" lon="8.972104708894124"><ele>552.0</ele><time>2026-05-01T07:14:15.003Z</time></trkpt><trkpt lat="40.75310180999725" lon="8.972241611787705"><ele>547.0</ele><time>2026-05-01T07:14:17.003Z</time></trkpt><trkpt lat="40.753087343534666" lon="8.972375716178227"><ele>545.8333333333334</ele><time>2026-05-01T07:14:19.003Z</time></trkpt><trkpt lat="40.75312567930067" lon="8.9725231693985"><ele>544.6666666666667</ele><time>2026-05-01T07:14:21.003Z</time></trkpt><trkpt lat="40.75315839641315" lon="8.972594992544792"><ele>543.5</ele><time>2026-05-01T07:14:22.003Z</time></trkpt><trkpt lat="40.75319102569317" lon="8.972669296115333"><ele>542.3333333333334</ele><time>2026-05-01T07:14:23.003Z</time></trkpt><trkpt lat="40.75321168653175" lon="8.972748811525427"><ele>541.1666666666666</ele><time>2026-05-01T07:14:24.003Z</time></trkpt><trkpt lat="40.75322643761234" lon="8.972836273768444"><ele>540.0</ele><time>2026-05-01T07:14:25.003Z</time></trkpt><trkpt lat="40.75322590287195" lon="8.973004486205602"><ele>540.0</ele><time>2026-05-01T07:14:27.003Z</time></trkpt><trkpt lat="40.75323290788094" lon="8.973152965272437"><ele>540.0</ele><time>2026-05-01T07:14:29.003Z</time></trkpt><trkpt lat="40.75324841892885" lon="8.97330059794855"><ele>540.0</ele><time>2026-05-01T07:14:31.003Z</time></trkpt><trkpt lat="40.75327138402348" lon="8.973428748192003"><ele>540.0</ele><time>2026-05-01T07:14:33.003Z</time></trkpt><trkpt lat="40.75329320065501" lon="8.97352933947625"><ele>540.0</ele><time>2026-05-01T07:14:35.003Z</time></trkpt><trkpt lat="40.753338528971405" lon="8.973638612556902"><ele>538.6666666666666</ele><time>2026-05-01T07:14:37.003Z</time></trkpt><trkpt lat="40.75337699557253" lon="8.973770131661704"><ele>537.3333333333334</ele><time>2026-05-01T07:14:39.003Z</time></trkpt><trkpt lat="40.75337624721118" lon="8.973874206388059"><ele>536.0</ele><time>2026-05-01T07:14:41.003Z</time></trkpt><trkpt lat="40.75334066737055" lon="8.97396707741348"><ele>534.6666666666667</ele><time>2026-05-01T07:14:44.003Z</time></trkpt><trkpt lat="40.75330735652289" lon="8.974066782708192"><ele>533.3333333333334</ele><time>2026-05-01T07:14:46.003Z</time></trkpt><trkpt lat="40.75325325587857" lon="8.974175312262672"><ele>532.0</ele><time>2026-05-01T07:14:48.003Z</time></trkpt><trkpt lat="40.753268666153886" lon="8.974280073736033"><ele>530.6666666666667</ele><time>2026-05-01T07:14:51.003Z</time></trkpt><trkpt lat="40.75334564490854" lon="8.974356993432616"><ele>529.3333333333334</ele><time>2026-05-01T07:14:53.003Z</time></trkpt><trkpt lat="40.75338837844694" lon="8.974419738582256"><ele>528.0</ele><time>2026-05-01T07:14:54.003Z</time></trkpt><trkpt lat="40.75341714161855" lon="8.974496609253807"><ele>526.6666666666666</ele><time>2026-05-01T07:14:55.003Z</time></trkpt><trkpt lat="40.75342531668611" lon="8.974637877049956"><ele>525.3333333333333</ele><time>2026-05-01T07:14:57.003Z</time></trkpt><trkpt lat="40.75338920953537" lon="8.974759688465271"><ele>524.0</ele><time>2026-05-01T07:14:59.003Z</time></trkpt><trkpt lat="40.75338126038218" lon="8.974873842384756"><ele>524.0</ele><time>2026-05-01T07:15:02.003Z</time></trkpt><trkpt lat="40.75343034874277" lon="8.974967319949352"><ele>524.0</ele><time>2026-05-01T07:15:04.003Z</time></trkpt><trkpt lat="40.75348606920846" lon="8.975026733275984"><ele>524.0</ele><time>2026-05-01T07:15:27.003Z</time></trkpt><trkpt lat="40.7535137900482" lon="8.975103779982385"><ele>524.0</ele><time>2026-05-01T07:15:30.003Z</time></trkpt><trkpt lat="40.75354477204018" lon="8.975188603666783"><ele>524.0</ele><time>2026-05-01T07:15:32.003Z</time></trkpt><trkpt lat="40.75358566727777" lon="8.975288052009516"><ele>524.0</ele><time>2026-05-01T07:15:34.003Z</time></trkpt><trkpt lat="40.753624957241385" lon="8.975377221523658"><ele>525.6666666666666</ele><time>2026-05-01T07:15:36.003Z</time></trkpt><trkpt lat="40.753641343247644" lon="8.97546177380545"><ele>527.3333333333333</ele><time>2026-05-01T07:15:38.003Z</time></trkpt><trkpt lat="40.75364796314878" lon="8.975562352556137"><ele>529.0</ele><time>2026-05-01T07:15:40.003Z</time></trkpt><trkpt lat="40.75364447965352" lon="8.975672401334794"><ele>530.6666666666666</ele><time>2026-05-01T07:15:42.003Z</time></trkpt><trkpt lat="40.7536332529775" lon="8.975780136862538"><ele>532.3333333333334</ele><time>2026-05-01T07:15:44.003Z</time></trkpt><trkpt lat="40.75363394974899" lon="8.97588036121454"><ele>534.0</ele><time>2026-05-01T07:15:46.003Z</time></trkpt><trkpt lat="40.75362691194065" lon="8.975975012959921"><ele>534.0000000000001</ele><time>2026-05-01T07:15:48.003Z</time></trkpt><trkpt lat="40.753618400751506" lon="8.976077566757027"><ele>534.0</ele><time>2026-05-01T07:15:50.003Z</time></trkpt><trkpt lat="40.7536110092536" lon="8.976194021325103"><ele>534.0</ele><time>2026-05-01T07:15:53.003Z</time></trkpt><trkpt lat="40.753614833316824" lon="8.976281003748856"><ele>534.0</ele><time>2026-05-01T07:15:55.003Z</time></trkpt><trkpt lat="40.75364347743571" lon="8.976381745229888"><ele>534.0</ele><time>2026-05-01T07:15:57.003Z</time></trkpt><trkpt lat="40.75367597460476" lon="8.976459885479791"><ele>534.0000000000001</ele><time>2026-05-01T07:15:59.003Z</time></trkpt><trkpt lat="40.75371998921864" lon="8.97652785355686"><ele>534.0</ele><time>2026-05-01T07:16:02.003Z</time></trkpt><trkpt lat="40.753761220612404" lon="8.976602130068661"><ele>530.1666666666666</ele><time>2026-05-01T07:16:06.003Z</time></trkpt><trkpt lat="40.75380766154448" lon="8.976690088401249"><ele>526.3333333333334</ele><time>2026-05-01T07:16:09.003Z</time></trkpt><trkpt lat="40.75385287803508" lon="8.976781190905358"><ele>522.5</ele><time>2026-05-01T07:16:12.004Z</time></trkpt><trkpt lat="40.75389165298684" lon="8.976872754371577"><ele>518.6666666666667</ele><time>2026-05-01T07:16:14.004Z</time></trkpt><trkpt lat="40.75391652565971" lon="8.976994719250087"><ele>514.8333333333334</ele><time>2026-05-01T07:16:16.004Z</time></trkpt><trkpt lat="40.7539420819864" lon="8.977101276383308"><ele>511.0</ele><time>2026-05-01T07:16:18.004Z</time></trkpt><trkpt lat="40.75397257255889" lon="8.977211939958382"><ele>511.00000000000006</ele><time>2026-05-01T07:16:20.004Z</time></trkpt><trkpt lat="40.75400476945727" lon="8.977335417509694"><ele>511.0</ele><time>2026-05-01T07:16:22.004Z</time></trkpt><trkpt lat="40.75401165065006" lon="8.977458414495555"><ele>511.0</ele><time>2026-05-01T07:16:24.004Z</time></trkpt><trkpt lat="40.75401773396652" lon="8.977552981535197"><ele>511.0</ele><time>2026-05-01T07:16:26.004Z</time></trkpt><trkpt lat="40.75402633818228" lon="8.977642585785889"><ele>511.00000000000006</ele><time>2026-05-01T07:16:29.004Z</time></trkpt><trkpt lat="40.75401784663585" lon="8.97774397393753"><ele>511.0</ele><time>2026-05-01T07:16:31.004Z</time></trkpt><trkpt lat="40.75402849788193" lon="8.977852031618234"><ele>508.6</ele><time>2026-05-01T07:16:33.004Z</time></trkpt><trkpt lat="40.75409734251617" lon="8.977905046682524"><ele>506.20000000000005</ele><time>2026-05-01T07:16:35.004Z</time></trkpt><trkpt lat="40.754196824148146" lon="8.97791587496355"><ele>503.79999999999995</ele><time>2026-05-01T07:16:37.004Z</time></trkpt><trkpt lat="40.75428157291487" lon="8.977902658817158"><ele>501.4</ele><time>2026-05-01T07:16:39.004Z</time></trkpt><trkpt lat="40.75439062790552" lon="8.977916315556286"><ele>499.0</ele><time>2026-05-01T07:16:41.004Z</time></trkpt><trkpt lat="40.754507209213024" lon="8.977958568248171"><ele>499.0</ele><time>2026-05-01T07:16:43.004Z</time></trkpt><trkpt lat="40.754619139809364" lon="8.977999356644037"><ele>499.0</ele><time>2026-05-01T07:16:45.004Z</time></trkpt><trkpt lat="40.75472063166761" lon="8.97801680478051"><ele>499.0</ele><time>2026-05-01T07:16:47.004Z</time></trkpt><trkpt lat="40.75481978364741" lon="8.978001555131184"><ele>499.0</ele><time>2026-05-01T07:16:49.004Z</time></trkpt><trkpt lat="40.75490410517782" lon="8.977969175794472"><ele>499.0</ele><time>2026-05-01T07:16:51.004Z</time></trkpt><trkpt lat="40.754991152014675" lon="8.977923782626636"><ele>499.0</ele><time>2026-05-01T07:16:53.004Z</time></trkpt><trkpt lat="40.75509333714881" lon="8.977906824757717"><ele>499.0</ele><time>2026-05-01T07:16:55.004Z</time></trkpt><trkpt lat="40.75520607859509" lon="8.977955359714924"><ele>499.0</ele><time>2026-05-01T07:16:57.004Z</time></trkpt><trkpt lat="40.75531258114328" lon="8.97800452333648"><ele>499.0</ele><time>2026-05-01T07:16:59.004Z</time></trkpt><trkpt lat="40.755430479349755" lon="8.97805523952052"><ele>499.1666666666667</ele><time>2026-05-01T07:17:01.004Z</time></trkpt><trkpt lat="40.75551708121068" lon="8.978165557253652"><ele>499.33333333333337</ele><time>2026-05-01T07:17:03.004Z</time></trkpt><trkpt lat="40.75556374700574" lon="8.978224346483975"><ele>499.5</ele><time>2026-05-01T07:17:04.004Z</time></trkpt><trkpt lat="40.75561350946933" lon="8.978275387887447"><ele>499.66666666666663</ele><time>2026-05-01T07:17:05.004Z</time></trkpt><trkpt lat="40.755666593235524" lon="8.978320315434257"><ele>499.8333333333333</ele><time>2026-05-01T07:17:06.004Z</time></trkpt><trkpt lat="40.75575369125589" lon="8.97843670982889"><ele>500.0</ele><time>2026-05-01T07:17:08.004Z</time></trkpt><trkpt lat="40.75579975867342" lon="8.978507798598837"><ele>499.99999999999994</ele><time>2026-05-01T07:17:09.004Z</time></trkpt><trkpt lat="40.75583622072308" lon="8.978584389612694"><ele>500.0</ele><time>2026-05-01T07:17:10.004Z</time></trkpt><trkpt lat="40.75586619808886" lon="8.978666101282718"><ele>500.0</ele><time>2026-05-01T07:17:11.004Z</time></trkpt><trkpt lat="40.75588996792008" lon="8.978744711675933"><ele>500.0</ele><time>2026-05-01T07:17:12.004Z</time></trkpt><trkpt lat="40.75594270349165" lon="8.978891743170019"><ele>499.99999999999994</ele><time>2026-05-01T07:17:14.004Z</time></trkpt><trkpt lat="40.75597474824343" lon="8.978976309552278"><ele>500.0</ele><time>2026-05-01T07:17:15.004Z</time></trkpt><trkpt lat="40.75601073734877" lon="8.979059948798794"><ele>500.49999999999994</ele><time>2026-05-01T07:17:16.004Z</time></trkpt><trkpt lat="40.756043132401494" lon="8.979141651805758"><ele>501.0</ele><time>2026-05-01T07:17:17.004Z</time></trkpt><trkpt lat="40.75608192139447" lon="8.979257834577359"><ele>501.5</ele><time>2026-05-01T07:17:19.004Z</time></trkpt><trkpt lat="40.75612536112398" lon="8.979334609212977"><ele>502.0</ele><time>2026-05-01T07:17:21.004Z</time></trkpt><trkpt lat="40.75618006512871" lon="8.979413604031349"><ele>502.49999999999994</ele><time>2026-05-01T07:17:24.004Z</time></trkpt><trkpt lat="40.75623900659306" lon="8.979452040556032"><ele>503.0</ele><time>2026-05-01T07:17:26.004Z</time></trkpt><trkpt lat="40.756298493947824" lon="8.979494273795181"><ele>503.0</ele><time>2026-05-01T07:17:28.004Z</time></trkpt><trkpt lat="40.75637443985013" lon="8.979567748357939"><ele>502.99999999999994</ele><time>2026-05-01T07:17:30.004Z</time></trkpt><trkpt lat="40.75645936343288" lon="8.979638459873417"><ele>502.99999999999994</ele><time>2026-05-01T07:17:32.004Z</time></trkpt><trkpt lat="40.75654638979899" lon="8.979721378585618"><ele>503.0</ele><time>2026-05-01T07:17:34.004Z</time></trkpt><trkpt lat="40.756627951746054" lon="8.979793750438175"><ele>503.0</ele><time>2026-05-01T07:17:36.004Z</time></trkpt><trkpt lat="40.75668730681253" lon="8.97985579988226"><ele>503.0</ele><time>2026-05-01T07:17:38.004Z</time></trkpt><trkpt lat="40.756770417821215" lon="8.979925758304969"><ele>502.99999999999994</ele><time>2026-05-01T07:17:40.004Z</time></trkpt><trkpt lat="40.75686892776271" lon="8.979975291365884"><ele>502.99999999999994</ele><time>2026-05-01T07:17:42.004Z</time></trkpt><trkpt lat="40.75696499216969" lon="8.980008357271835"><ele>503.0</ele><time>2026-05-01T07:17:44.004Z</time></trkpt><trkpt lat="40.757055650094976" lon="8.980026081038115"><ele>503.0</ele><time>2026-05-01T07:17:46.004Z</time></trkpt><trkpt lat="40.757120673366906" lon="8.980042196660545"><ele>504.3333333333333</ele><time>2026-05-01T07:17:48.004Z</time></trkpt><trkpt lat="40.757205928427865" lon="8.98008189890905"><ele>505.66666666666663</ele><time>2026-05-01T07:17:51.004Z</time></trkpt><trkpt lat="40.75725724263996" lon="8.980170412484744"><ele>507.0</ele><time>2026-05-01T07:17:53.004Z</time></trkpt><trkpt lat="40.757281274263185" lon="8.980292658538167"><ele>508.33333333333337</ele><time>2026-05-01T07:17:55.004Z</time></trkpt><trkpt lat="40.757302275311346" lon="8.980385561866681"><ele>509.6666666666667</ele><time>2026-05-01T07:17:57.004Z</time></trkpt><trkpt lat="40.75737420814716" lon="8.980480710095453"><ele>511.0</ele><time>2026-05-01T07:17:59.004Z</time></trkpt><trkpt lat="40.75746561388958" lon="8.980582464800701"><ele>511.00000000000006</ele><time>2026-05-01T07:18:01.004Z</time></trkpt><trkpt lat="40.757540046549515" lon="8.980641957726622"><ele>511.0</ele><time>2026-05-01T07:18:03.004Z</time></trkpt><trkpt lat="40.757569844096636" lon="8.980562348458806"><ele>511.0</ele><time>2026-05-01T07:19:29.005Z</time></trkpt><trkpt lat="40.757576517939896" lon="8.980477262570655"><ele>511.0</ele><time>2026-05-01T07:19:32.005Z</time></trkpt><trkpt lat="40.75760026678533" lon="8.980376057520775"><ele>511.00000000000006</ele><time>2026-05-01T07:19:34.005Z</time></trkpt><trkpt lat="40.757621567228824" lon="8.98027493711478"><ele>511.0</ele><time>2026-05-01T07:19:36.005Z</time></trkpt><trkpt lat="40.757685425560375" lon="8.980183769940178"><ele>510.6</ele><time>2026-05-01T07:19:38.005Z</time></trkpt><trkpt lat="40.75775141132859" lon="8.980120198035536"><ele>510.20000000000005</ele><time>2026-05-01T07:19:40.005Z</time></trkpt><trkpt lat="40.75783466295755" lon="8.979991815698318"><ele>509.79999999999995</ele><time>2026-05-01T07:19:42.005Z</time></trkpt><trkpt lat="40.7578732712214" lon="8.979916962140779"><ele>509.4</ele><time>2026-05-01T07:19:43.005Z</time></trkpt><trkpt lat="40.75791758417422" lon="8.979820837429862"><ele>509.0</ele><time>2026-05-01T07:19:44.005Z</time></trkpt><trkpt lat="40.75796336025562" lon="8.979719279864357"><ele>509.79999999999995</ele><time>2026-05-01T07:19:45.005Z</time></trkpt><trkpt lat="40.7580137206215" lon="8.979623292336958"><ele>510.59999999999997</ele><time>2026-05-01T07:19:46.005Z</time></trkpt><trkpt lat="40.758062592233" lon="8.979528644716325"><ele>511.4</ele><time>2026-05-01T07:19:47.005Z</time></trkpt><trkpt lat="40.75811465408713" lon="8.979434780206232"><ele>512.1999999999999</ele><time>2026-05-01T07:19:48.005Z</time></trkpt><trkpt lat="40.75816440364891" lon="8.979335158268157"><ele>513.0</ele><time>2026-05-01T07:19:49.005Z</time></trkpt><trkpt lat="40.75821698815025" lon="8.979221879917414"><ele>515.8</ele><time>2026-05-01T07:19:50.005Z</time></trkpt><trkpt lat="40.75827254538906" lon="8.979104782920183"><ele>518.5999999999999</ele><time>2026-05-01T07:19:51.005Z</time></trkpt><trkpt lat="40.75832264460602" lon="8.978993887140607"><ele>521.4000000000001</ele><time>2026-05-01T07:19:52.005Z</time></trkpt><trkpt lat="40.75837565588819" lon="8.978882478039713"><ele>524.2</ele><time>2026-05-01T07:19:53.005Z</time></trkpt><trkpt lat="40.75842593672113" lon="8.978760544271779"><ele>527.0</ele><time>2026-05-01T07:19:54.005Z</time></trkpt><trkpt lat="40.75848199542203" lon="8.978644950993077"><ele>527.0</ele><time>2026-05-01T07:19:55.005Z</time></trkpt><trkpt lat="40.75853224806687" lon="8.978535284204051"><ele>527.0</ele><time>2026-05-01T07:19:56.005Z</time></trkpt><trkpt lat="40.75857713257693" lon="8.978410241679322"><ele>527.0</ele><time>2026-05-01T07:19:57.005Z</time></trkpt><trkpt lat="40.758607863688496" lon="8.978287789708991"><ele>527.0</ele><time>2026-05-01T07:19:58.005Z</time></trkpt><trkpt lat="40.75863350290107" lon="8.978155412792223"><ele>527.0</ele><time>2026-05-01T07:19:59.005Z</time></trkpt><trkpt lat="40.75866770422968" lon="8.978047249513194"><ele>527.5</ele><time>2026-05-01T07:20:00.005Z</time></trkpt><trkpt lat="40.758702958545335" lon="8.977965615105875"><ele>528.0</ele><time>2026-05-01T07:20:01.005Z</time></trkpt><trkpt lat="40.7587559472713" lon="8.97791497362193"><ele>528.5</ele><time>2026-05-01T07:20:02.005Z</time></trkpt><trkpt lat="40.75883819129516" lon="8.97785501160189"><ele>529.0</ele><time>2026-05-01T07:20:04.005Z</time></trkpt><trkpt lat="40.75887069818389" lon="8.977702599400583"><ele>529.5</ele><time>2026-05-01T07:20:06.005Z</time></trkpt><trkpt lat="40.758893106555114" lon="8.977593229702133"><ele>530.0</ele><time>2026-05-01T07:20:07.005Z</time></trkpt><trkpt lat="40.75892068229289" lon="8.977477351753093"><ele>530.0</ele><time>2026-05-01T07:20:08.005Z</time></trkpt><trkpt lat="40.75894028440715" lon="8.97737937110166"><ele>530.0</ele><time>2026-05-01T07:20:09.005Z</time></trkpt><trkpt lat="40.75896012616766" lon="8.97728228379737"><ele>530.0</ele><time>2026-05-01T07:20:10.005Z</time></trkpt><trkpt lat="40.75898861351698" lon="8.977195181458542"><ele>530.0</ele><time>2026-05-01T07:20:11.005Z</time></trkpt><trkpt lat="40.759015428922325" lon="8.977109225088968"><ele>530.0</ele><time>2026-05-01T07:20:12.005Z</time></trkpt><trkpt lat="40.75906301541061" lon="8.97701083419922"><ele>530.0</ele><time>2026-05-01T07:20:13.005Z</time></trkpt><trkpt lat="40.75911187888079" lon="8.976905328386461"><ele>530.0</ele><time>2026-05-01T07:20:14.005Z</time></trkpt><trkpt lat="40.759131601229996" lon="8.976762365404788"><ele>530.0</ele><time>2026-05-01T07:20:15.005Z</time></trkpt><trkpt lat="40.75915957522705" lon="8.976659628010056"><ele>530.0</ele><time>2026-05-01T07:20:16.005Z</time></trkpt><trkpt lat="40.75919124845317" lon="8.976562352820546"><ele>530.0</ele><time>2026-05-01T07:20:17.005Z</time></trkpt><trkpt lat="40.75920468955428" lon="8.976444804906166"><ele>530.0</ele><time>2026-05-01T07:20:18.005Z</time></trkpt><trkpt lat="40.75922177204009" lon="8.976358841240188"><ele>530.0</ele><time>2026-05-01T07:20:19.005Z</time></trkpt><trkpt lat="40.75922538228286" lon="8.976247735072185"><ele>531.1666666666666</ele><time>2026-05-01T07:20:20.005Z</time></trkpt><trkpt lat="40.75923794428598" lon="8.976126206239266"><ele>532.3333333333333</ele><time>2026-05-01T07:20:21.005Z</time></trkpt><trkpt lat="40.75925386648966" lon="8.976006822112572"><ele>533.5</ele><time>2026-05-01T07:20:22.005Z</time></trkpt><trkpt lat="40.75925251193384" lon="8.975903630858"><ele>534.6666666666666</ele><time>2026-05-01T07:20:23.005Z</time></trkpt><trkpt lat="40.75924377134896" lon="8.97579784289675"><ele>535.8333333333334</ele><time>2026-05-01T07:20:24.005Z</time></trkpt><trkpt lat="40.75922807516095" lon="8.975705855514267"><ele>537.0</ele><time>2026-05-01T07:20:25.005Z</time></trkpt><trkpt lat="40.75920163602324" lon="8.97562698237805"><ele>538.2</ele><time>2026-05-01T07:20:26.005Z</time></trkpt><trkpt lat="40.75915234087479" lon="8.975556394900005"><ele>539.4000000000001</ele><time>2026-05-01T07:20:27.005Z</time></trkpt><trkpt lat="40.75908893550256" lon="8.975479870535253"><ele>540.5999999999999</ele><time>2026-05-01T07:20:28.005Z</time></trkpt><trkpt lat="40.75901504869721" lon="8.975380220476739"><ele>541.8</ele><time>2026-05-01T07:20:29.005Z</time></trkpt><trkpt lat="40.75895711689713" lon="8.975272107113579"><ele>543.0</ele><time>2026-05-01T07:20:30.005Z</time></trkpt><trkpt lat="40.75890951824928" lon="8.975165792607338"><ele>543.0</ele><time>2026-05-01T07:20:31.005Z</time></trkpt><trkpt lat="40.75886033196675" lon="8.975073812684169"><ele>543.0</ele><time>2026-05-01T07:20:32.005Z</time></trkpt><trkpt lat="40.7587955487558" lon="8.974984212373483"><ele>543.0</ele><time>2026-05-01T07:20:33.005Z</time></trkpt><trkpt lat="40.75872294218789" lon="8.974900382594964"><ele>543.0</ele><time>2026-05-01T07:20:34.005Z</time></trkpt><trkpt lat="40.75864099988772" lon="8.974822503693263"><ele>543.0</ele><time>2026-05-01T07:20:35.005Z</time></trkpt><trkpt lat="40.75856266564895" lon="8.97474446281916"><ele>545.8</ele><time>2026-05-01T07:20:36.005Z</time></trkpt><trkpt lat="40.75849651167726" lon="8.974671170017027"><ele>548.5999999999999</ele><time>2026-05-01T07:20:37.005Z</time></trkpt><trkpt lat="40.758432296401" lon="8.974597121643857"><ele>551.4000000000001</ele><time>2026-05-01T07:20:38.005Z</time></trkpt><trkpt lat="40.758360864659224" lon="8.974514465720635"><ele>554.2</ele><time>2026-05-01T07:20:39.005Z</time></trkpt><trkpt lat="40.758288776968925" lon="8.974433000328965"><ele>557.0</ele><time>2026-05-01T07:20:40.005Z</time></trkpt><trkpt lat="40.75821235129171" lon="8.97436331195153"><ele>557.0</ele><time>2026-05-01T07:20:41.005Z</time></trkpt><trkpt lat="40.758135355612765" lon="8.974297601876973"><ele>557.0</ele><time>2026-05-01T07:20:42.005Z</time></trkpt><trkpt lat="40.758069480536584" lon="8.97422916507946"><ele>557.0</ele><time>2026-05-01T07:20:43.005Z</time></trkpt><trkpt lat="40.75801549623427" lon="8.974141345171867"><ele>557.0</ele><time>2026-05-01T07:20:44.005Z</time></trkpt><trkpt lat="40.757971738613605" lon="8.974054172415814"><ele>557.0</ele><time>2026-05-01T07:20:45.005Z</time></trkpt><trkpt lat="40.757948351228215" lon="8.973970629172744"><ele>557.0</ele><time>2026-05-01T07:20:46.005Z</time></trkpt><trkpt lat="40.757927765867095" lon="8.973877457440802"><ele>558.2</ele><time>2026-05-01T07:20:47.005Z</time></trkpt><trkpt lat="40.7579034676042" lon="8.973791999515774"><ele>559.4000000000001</ele><time>2026-05-01T07:20:48.005Z</time></trkpt><trkpt lat="40.75782306723824" lon="8.973666338346888"><ele>560.5999999999999</ele><time>2026-05-01T07:20:50.005Z</time></trkpt><trkpt lat="40.75775364073759" lon="8.973610522409967"><ele>561.8</ele><time>2026-05-01T07:20:51.005Z</time></trkpt><trkpt lat="40.75767560523447" lon="8.973544671190457"><ele>563.0</ele><time>2026-05-01T07:20:52.005Z</time></trkpt><trkpt lat="40.75759487296811" lon="8.97347043290287"><ele>563.0</ele><time>2026-05-01T07:20:53.005Z</time></trkpt><trkpt lat="40.757516835584354" lon="8.973397256669479"><ele>563.0</ele><time>2026-05-01T07:20:54.005Z</time></trkpt><trkpt lat="40.75743708617547" lon="8.973320451104746"><ele>563.0</ele><time>2026-05-01T07:20:55.005Z</time></trkpt><trkpt lat="40.75735652382786" lon="8.973240378031557"><ele>563.0</ele><time>2026-05-01T07:20:56.005Z</time></trkpt><trkpt lat="40.7572844026908" lon="8.973183509335755"><ele>563.0</ele><time>2026-05-01T07:20:57.005Z</time></trkpt><trkpt lat="40.75721302822476" lon="8.973144812082396"><ele>564.8</ele><time>2026-05-01T07:20:58.005Z</time></trkpt><trkpt lat="40.75712473088299" lon="8.973108530696932"><ele>566.5999999999999</ele><time>2026-05-01T07:20:59.005Z</time></trkpt><trkpt lat="40.757030798928376" lon="8.973065095911695"><ele>568.4000000000001</ele><time>2026-05-01T07:21:00.005Z</time></trkpt><trkpt lat="40.756940523352505" lon="8.973004120649039"><ele>570.2</ele><time>2026-05-01T07:21:01.005Z</time></trkpt><trkpt lat="40.75686414785824" lon="8.972941785396213"><ele>572.0</ele><time>2026-05-01T07:21:02.005Z</time></trkpt><trkpt lat="40.756805390022805" lon="8.972880956851832"><ele>572.0</ele><time>2026-05-01T07:21:03.005Z</time></trkpt><trkpt lat="40.75677040419196" lon="8.97278948438819"><ele>572.0</ele><time>2026-05-01T07:21:04.005Z</time></trkpt><trkpt lat="40.75675419791497" lon="8.972681484936063"><ele>572.0</ele><time>2026-05-01T07:21:05.005Z</time></trkpt><trkpt lat="40.7567434742166" lon="8.972562072054796"><ele>572.0</ele><time>2026-05-01T07:21:06.005Z</time></trkpt><trkpt lat="40.756733129969085" lon="8.972421398009699"><ele>572.0</ele><time>2026-05-01T07:21:07.005Z</time></trkpt><trkpt lat="40.75670968350761" lon="8.97227062583816"><ele>569.8000000000001</ele><time>2026-05-01T07:21:08.005Z</time></trkpt><trkpt lat="40.75668561158056" lon="8.97211984976988"><ele>567.6</ele><time>2026-05-01T07:21:09.005Z</time></trkpt><trkpt lat="40.75665290766318" lon="8.97198602869478"><ele>565.4000000000001</ele><time>2026-05-01T07:21:10.005Z</time></trkpt><trkpt lat="40.756624260858615" lon="8.97186444991737"><ele>563.2</ele><time>2026-05-01T07:21:11.005Z</time></trkpt><trkpt lat="40.7565845583839" lon="8.971755304109134"><ele>561.0</ele><time>2026-05-01T07:21:12.005Z</time></trkpt><trkpt lat="40.7565078684608" lon="8.971623363903902"><ele>560.2</ele><time>2026-05-01T07:21:13.005Z</time></trkpt><trkpt lat="40.756435022923796" lon="8.971541043476334"><ele>559.4000000000001</ele><time>2026-05-01T07:21:14.005Z</time></trkpt><trkpt lat="40.7563614862899" lon="8.971446198780992"><ele>558.6</ele><time>2026-05-01T07:21:15.005Z</time></trkpt><trkpt lat="40.756275281022894" lon="8.971351495226738"><ele>557.8000000000001</ele><time>2026-05-01T07:21:16.005Z</time></trkpt><trkpt lat="40.75620661278387" lon="8.971199367457414"><ele>557.0</ele><time>2026-05-01T07:21:18.005Z</time></trkpt><trkpt lat="40.75615667901391" lon="8.9711048929345"><ele>557.0</ele><time>2026-05-01T07:21:19.005Z</time></trkpt><trkpt lat="40.75611088730596" lon="8.97101498084559"><ele>557.0</ele><time>2026-05-01T07:21:20.005Z</time></trkpt><trkpt lat="40.756070703096846" lon="8.970932452598657"><ele>557.0</ele><time>2026-05-01T07:21:22.005Z</time></trkpt><trkpt lat="40.75610273965662" lon="8.970799273353652"><ele>557.0</ele><time>2026-05-01T07:21:26.005Z</time></trkpt><trkpt lat="40.75616904415469" lon="8.970680932760903"><ele>557.0</ele><time>2026-05-01T07:21:28.005Z</time></trkpt><trkpt lat="40.75621074279905" lon="8.970524642788577"><ele>558.0</ele><time>2026-05-01T07:21:30.005Z</time></trkpt><trkpt lat="40.75622123236871" lon="8.970437332845004"><ele>559.0</ele><time>2026-05-01T07:21:31.005Z</time></trkpt><trkpt lat="40.756228457945376" lon="8.970348239806071"><ele>560.0</ele><time>2026-05-01T07:21:32.005Z</time></trkpt><trkpt lat="40.756244402761695" lon="8.970235083553082"><ele>561.0</ele><time>2026-05-01T07:21:34.005Z</time></trkpt><trkpt lat="40.756299236564104" lon="8.970166160809383"><ele>562.0</ele><time>2026-05-01T07:21:36.005Z</time></trkpt><trkpt lat="40.75635337434466" lon="8.970213279896939"><ele>563.0</ele><time>2026-05-01T07:21:38.005Z</time></trkpt><trkpt lat="40.75639125609398" lon="8.970381496320257"><ele>563.0</ele><time>2026-05-01T07:21:40.005Z</time></trkpt><trkpt lat="40.756409902692965" lon="8.970486779249107"><ele>563.0</ele><time>2026-05-01T07:21:41.005Z</time></trkpt><trkpt lat="40.75645743444472" lon="8.970629472660788"><ele>563.0</ele><time>2026-05-01T07:21:42.005Z</time></trkpt><trkpt lat="40.7565176948403" lon="8.9707641252076"><ele>563.0</ele><time>2026-05-01T07:21:43.005Z</time></trkpt><trkpt lat="40.756591190127935" lon="8.97088445704597"><ele>563.0</ele><time>2026-05-01T07:21:44.005Z</time></trkpt><trkpt lat="40.75651074434195" lon="8.970631358129197"><ele>563.0</ele><time>2026-05-01T07:21:45.005Z</time></trkpt><trkpt lat="40.75662864273821" lon="8.970664413926123"><ele>563.0</ele><time>2026-05-01T07:21:47.005Z</time></trkpt><trkpt lat="40.75669334127639" lon="8.970701479565458"><ele>563.0</ele><time>2026-05-01T07:21:48.005Z</time></trkpt><trkpt lat="40.75676189990601" lon="8.970748514058469"><ele>563.0</ele><time>2026-05-01T07:21:49.005Z</time></trkpt><trkpt lat="40.75683006348487" lon="8.97079841425053"><ele>563.0</ele><time>2026-05-01T07:21:50.005Z</time></trkpt><trkpt lat="40.756896589260045" lon="8.970840003010625"><ele>563.0</ele><time>2026-05-01T07:21:51.005Z</time></trkpt><trkpt lat="40.75696338622252" lon="8.97087413686857"><ele>561.4</ele><time>2026-05-01T07:21:52.005Z</time></trkpt><trkpt lat="40.757030361720446" lon="8.970884765876916"><ele>559.8</ele><time>2026-05-01T07:21:53.005Z</time></trkpt><trkpt lat="40.75714810811316" lon="8.970867556571621"><ele>558.2</ele><time>2026-05-01T07:21:55.005Z</time></trkpt><trkpt lat="40.75725145921702" lon="8.970813399944912"><ele>556.6</ele><time>2026-05-01T07:21:57.005Z</time></trkpt><trkpt lat="40.757351738826756" lon="8.97080361335844"><ele>555.0</ele><time>2026-05-01T07:21:59.005Z</time></trkpt><trkpt lat="40.75739520763995" lon="8.970904279740278"><ele>555.0</ele><time>2026-05-01T07:22:01.005Z</time></trkpt><trkpt lat="40.757393870110135" lon="8.971052507057385"><ele>555.0</ele><time>2026-05-01T07:22:03.005Z</time></trkpt><trkpt lat="40.75739361187815" lon="8.971135990892721"><ele>555.0</ele><time>2026-05-01T07:22:04.005Z</time></trkpt><trkpt lat="40.75744065804604" lon="8.97122912013765"><ele>555.0</ele><time>2026-05-01T07:22:06.005Z</time></trkpt><trkpt lat="40.757524351746014" lon="8.971275678179536"><ele>555.0</ele><time>2026-05-01T07:22:08.005Z</time></trkpt><trkpt lat="40.75761025357971" lon="8.97132399855005"><ele>555.0</ele><time>2026-05-01T07:22:10.005Z</time></trkpt><trkpt lat="40.757696647813276" lon="8.971306246681124"><ele>555.0</ele><time>2026-05-01T07:22:13.005Z</time></trkpt><trkpt lat="40.75775696760207" lon="8.971262096518469"><ele>555.0</ele><time>2026-05-01T07:22:15.005Z</time></trkpt><trkpt lat="40.757831122355974" lon="8.971154493254499"><ele>555.0</ele><time>2026-05-01T07:22:17.005Z</time></trkpt><trkpt lat="40.757907461926436" lon="8.971015158754287"><ele>555.0</ele><time>2026-05-01T07:22:19.005Z</time></trkpt><trkpt lat="40.757944935841905" lon="8.970943712823555"><ele>555.0</ele><time>2026-05-01T07:22:20.005Z</time></trkpt><trkpt lat="40.75799801118608" lon="8.970799886642006"><ele>558.0</ele><time>2026-05-01T07:22:22.005Z</time></trkpt><trkpt lat="40.75806056942176" lon="8.970657298320077"><ele>561.0</ele><time>2026-05-01T07:22:24.005Z</time></trkpt><trkpt lat="40.75811201447407" lon="8.970491305449091"><ele>564.0</ele><time>2026-05-01T07:22:26.005Z</time></trkpt><trkpt lat="40.758148565599335" lon="8.970404364791962"><ele>567.0</ele><time>2026-05-01T07:22:27.005Z</time></trkpt><trkpt lat="40.75818174176234" lon="8.970314989082038"><ele>570.0</ele><time>2026-05-01T07:22:28.005Z</time></trkpt><trkpt lat="40.7581915694194" lon="8.970230265478946"><ele>570.0</ele><time>2026-05-01T07:22:29.005Z</time></trkpt><trkpt lat="40.75820692548386" lon="8.970134822431174"><ele>570.0</ele><time>2026-05-01T07:22:30.005Z</time></trkpt><trkpt lat="40.75823459280465" lon="8.970046775749287"><ele>570.0</ele><time>2026-05-01T07:22:31.005Z</time></trkpt><trkpt lat="40.75825691050705" lon="8.969954540372733"><ele>570.0</ele><time>2026-05-01T07:22:32.005Z</time></trkpt><trkpt lat="40.7582725837947" lon="8.969872443842963"><ele>570.0</ele><time>2026-05-01T07:22:33.005Z</time></trkpt><trkpt lat="40.75828224870124" lon="8.969788776005938"><ele>570.0</ele><time>2026-05-01T07:22:34.006Z</time></trkpt><trkpt lat="40.75830443532456" lon="8.969649131331282"><ele>573.75</ele><time>2026-05-01T07:22:36.006Z</time></trkpt><trkpt lat="40.75838101599732" lon="8.969571301165187"><ele>577.5</ele><time>2026-05-01T07:22:38.006Z</time></trkpt><trkpt lat="40.758485279579766" lon="8.96960026693624"><ele>581.25</ele><time>2026-05-01T07:22:40.006Z</time></trkpt><trkpt lat="40.75857062809142" lon="8.969721107767224"><ele>585.0</ele><time>2026-05-01T07:22:42.006Z</time></trkpt><trkpt lat="40.75867091424078" lon="8.969820319633145"><ele>586.0</ele><time>2026-05-01T07:22:44.006Z</time></trkpt><trkpt lat="40.75873487328593" lon="8.969851518354705"><ele>587.0</ele><time>2026-05-01T07:22:45.006Z</time></trkpt><trkpt lat="40.75879884160173" lon="8.969901658272647"><ele>588.0</ele><time>2026-05-01T07:22:46.006Z</time></trkpt><trkpt lat="40.75885886844474" lon="8.96993911818505"><ele>589.0</ele><time>2026-05-01T07:22:47.006Z</time></trkpt><trkpt lat="40.75892785859743" lon="8.970071182152676"><ele>590.0</ele><time>2026-05-01T07:22:49.006Z</time></trkpt><trkpt lat="40.758944845097005" lon="8.970152814200857"><ele>591.0</ele><time>2026-05-01T07:22:50.006Z</time></trkpt><trkpt lat="40.75896303668433" lon="8.970334205442573"><ele>591.0</ele><time>2026-05-01T07:22:52.006Z</time></trkpt><trkpt lat="40.758988163563856" lon="8.970415386874489"><ele>591.0</ele><time>2026-05-01T07:22:53.006Z</time></trkpt><trkpt lat="40.75902260701979" lon="8.970488057070298"><ele>591.0</ele><time>2026-05-01T07:22:54.006Z</time></trkpt><trkpt lat="40.75905400938716" lon="8.970564244037567"><ele>591.0</ele><time>2026-05-01T07:22:55.006Z</time></trkpt><trkpt lat="40.75911369897207" lon="8.970688154219824"><ele>591.0</ele><time>2026-05-01T07:22:57.006Z</time></trkpt><trkpt lat="40.75920025205634" lon="8.970788813855583"><ele>591.0</ele><time>2026-05-01T07:22:59.006Z</time></trkpt><trkpt lat="40.759295251706256" lon="8.970864738105384"><ele>593.2</ele><time>2026-05-01T07:23:01.006Z</time></trkpt><trkpt lat="40.75940463755831" lon="8.970893729722945"><ele>595.4000000000001</ele><time>2026-05-01T07:23:03.006Z</time></trkpt><trkpt lat="40.75949292945002" lon="8.970848265336585"><ele>597.6</ele><time>2026-05-01T07:23:05.006Z</time></trkpt><trkpt lat="40.75954924732125" lon="8.970809372992363"><ele>599.8000000000001</ele><time>2026-05-01T07:23:06.006Z</time></trkpt><trkpt lat="40.75965031499287" lon="8.970726817834297"><ele>602.0</ele><time>2026-05-01T07:23:08.006Z</time></trkpt><trkpt lat="40.759758868328255" lon="8.970638429468531"><ele>602.0</ele><time>2026-05-01T07:23:10.006Z</time></trkpt><trkpt lat="40.759831681979016" lon="8.970602075417201"><ele>602.0</ele><time>2026-05-01T07:23:11.006Z</time></trkpt><trkpt lat="40.75989842834951" lon="8.970574507992401"><ele>602.0</ele><time>2026-05-01T07:23:12.006Z</time></trkpt><trkpt lat="40.75996745699194" lon="8.970550323701556"><ele>602.0</ele><time>2026-05-01T07:23:13.006Z</time></trkpt><trkpt lat="40.76003413548504" lon="8.970539399096577"><ele>602.0</ele><time>2026-05-01T07:23:14.006Z</time></trkpt><trkpt lat="40.7601477575281" lon="8.970474246758053"><ele>602.0</ele><time>2026-05-01T07:23:16.006Z</time></trkpt><trkpt lat="40.76020624519188" lon="8.970414298732466"><ele>603.2857142857143</ele><time>2026-05-01T07:23:17.006Z</time></trkpt><trkpt lat="40.76027251927881" lon="8.970348152858374"><ele>604.5714285714286</ele><time>2026-05-01T07:23:18.006Z</time></trkpt><trkpt lat="40.76033450303251" lon="8.970289306103647"><ele>605.8571428571429</ele><time>2026-05-01T07:23:19.006Z</time></trkpt><trkpt lat="40.760389818258076" lon="8.970232583073384"><ele>607.1428571428571</ele><time>2026-05-01T07:23:20.006Z</time></trkpt><trkpt lat="40.76044551299591" lon="8.970185587564579"><ele>608.4285714285714</ele><time>2026-05-01T07:23:21.006Z</time></trkpt><trkpt lat="40.76049540966196" lon="8.970130039183264"><ele>609.7142857142858</ele><time>2026-05-01T07:23:22.006Z</time></trkpt><trkpt lat="40.760543470568216" lon="8.97007117522528"><ele>611.0</ele><time>2026-05-01T07:23:23.006Z</time></trkpt><trkpt lat="40.760609684906214" lon="8.970000722414234"><ele>611.0</ele><time>2026-05-01T07:23:24.006Z</time></trkpt><trkpt lat="40.760669197016966" lon="8.969921465863967"><ele>611.0</ele><time>2026-05-01T07:23:25.006Z</time></trkpt><trkpt lat="40.760724053041116" lon="8.969841729557938"><ele>611.0</ele><time>2026-05-01T07:23:26.006Z</time></trkpt><trkpt lat="40.76078579609554" lon="8.969758454108169"><ele>611.0</ele><time>2026-05-01T07:23:27.006Z</time></trkpt><trkpt lat="40.76084385916117" lon="8.969670673726583"><ele>611.0</ele><time>2026-05-01T07:23:28.006Z</time></trkpt><trkpt lat="40.76090709106257" lon="8.969588621211125"><ele>611.0</ele><time>2026-05-01T07:23:29.006Z</time></trkpt><trkpt lat="40.76095581962454" lon="8.969526017991116"><ele>609.8</ele><time>2026-05-01T07:23:30.006Z</time></trkpt><trkpt lat="40.761041277045024" lon="8.969434209512833"><ele>608.6</ele><time>2026-05-01T07:23:32.006Z</time></trkpt><trkpt lat="40.761159377736234" lon="8.969418265880915"><ele>607.4</ele><time>2026-05-01T07:23:34.006Z</time></trkpt><trkpt lat="40.76122556461627" lon="8.969457267191256"><ele>606.2</ele><time>2026-05-01T07:23:35.006Z</time></trkpt><trkpt lat="40.761286391348676" lon="8.969521418177155"><ele>605.0</ele><time>2026-05-01T07:23:36.006Z</time></trkpt><trkpt lat="40.761336506687854" lon="8.969591679260823"><ele>605.0</ele><time>2026-05-01T07:23:37.006Z</time></trkpt><trkpt lat="40.7613828442281" lon="8.969661291421037"><ele>605.0</ele><time>2026-05-01T07:23:38.006Z</time></trkpt><trkpt lat="40.76143734887984" lon="8.969716598973267"><ele>605.0</ele><time>2026-05-01T07:23:39.006Z</time></trkpt><trkpt lat="40.761549553514335" lon="8.969780567494636"><ele>605.0</ele><time>2026-05-01T07:23:41.006Z</time></trkpt><trkpt lat="40.761690908367115" lon="8.96980409222762"><ele>605.0</ele><time>2026-05-01T07:23:43.006Z</time></trkpt><trkpt lat="40.761767149277794" lon="8.969795741444859"><ele>605.0</ele><time>2026-05-01T07:23:44.006Z</time></trkpt><trkpt lat="40.76184044450128" lon="8.969773401210343"><ele>605.0</ele><time>2026-05-01T07:23:45.006Z</time></trkpt><trkpt lat="40.7619327002957" lon="8.969932736101104"><ele>605.0</ele><time>2026-05-01T07:23:46.006Z</time></trkpt><trkpt lat="40.76204571493984" lon="8.969903356577301"><ele>605.0</ele><time>2026-05-01T07:23:48.006Z</time></trkpt><trkpt lat="40.76211308069557" lon="8.969858344747456"><ele>605.0</ele><time>2026-05-01T07:23:50.006Z</time></trkpt><trkpt lat="40.76217917033885" lon="8.9698095616927"><ele>603.0</ele><time>2026-05-01T07:23:52.006Z</time></trkpt><trkpt lat="40.76226686478031" lon="8.969736915603086"><ele>601.0</ele><time>2026-05-01T07:23:55.006Z</time></trkpt><trkpt lat="40.762345369674776" lon="8.969671881998229"><ele>599.0</ele><time>2026-05-01T07:23:57.006Z</time></trkpt><trkpt lat="40.76222210654038" lon="8.969282815892099"><ele>599.0</ele><time>2026-05-01T07:23:59.006Z</time></trkpt><trkpt lat="40.76226805655018" lon="8.96919459929456"><ele>599.0</ele><time>2026-05-01T07:24:01.006Z</time></trkpt><trkpt lat="40.76234599171524" lon="8.969138599556771"><ele>599.0</ele><time>2026-05-01T07:24:03.006Z</time></trkpt><trkpt lat="40.76243855093212" lon="8.969086262576283"><ele>599.0</ele><time>2026-05-01T07:24:05.006Z</time></trkpt><trkpt lat="40.76250680733823" lon="8.969022380026013"><ele>599.0</ele><time>2026-05-01T07:24:07.006Z</time></trkpt><trkpt lat="40.762590921340376" lon="8.968908939278537"><ele>599.0</ele><time>2026-05-01T07:24:09.006Z</time></trkpt><trkpt lat="40.76266981772834" lon="8.96886373931817"><ele>599.0</ele><time>2026-05-01T07:24:11.006Z</time></trkpt><trkpt lat="40.76275058204184" lon="8.968911934151603"><ele>599.0</ele><time>2026-05-01T07:24:13.006Z</time></trkpt><trkpt lat="40.762801225421306" lon="8.969029645931649"><ele>599.0</ele><time>2026-05-01T07:24:15.006Z</time></trkpt><trkpt lat="40.762836716751806" lon="8.969126911377797"><ele>599.0</ele><time>2026-05-01T07:24:17.006Z</time></trkpt><trkpt lat="40.76289978431375" lon="8.969210701486903"><ele>599.0</ele><time>2026-05-01T07:24:19.006Z</time></trkpt><trkpt lat="40.76300689191817" lon="8.969226034172117"><ele>602.2</ele><time>2026-05-01T07:24:21.006Z</time></trkpt><trkpt lat="40.763108746238586" lon="8.969175049148632"><ele>605.4</ele><time>2026-05-01T07:24:23.006Z</time></trkpt><trkpt lat="40.76321077995079" lon="8.969094319812802"><ele>608.6</ele><time>2026-05-01T07:24:25.006Z</time></trkpt><trkpt lat="40.76326782024544" lon="8.969048500320993"><ele>611.8</ele><time>2026-05-01T07:24:26.006Z</time></trkpt><trkpt lat="40.76337438567187" lon="8.968953711981165"><ele>615.0</ele><time>2026-05-01T07:24:28.006Z</time></trkpt><trkpt lat="40.76342356006578" lon="8.96890078650853"><ele>615.0</ele><time>2026-05-01T07:24:29.006Z</time></trkpt><trkpt lat="40.76352081002222" lon="8.968800769865101"><ele>615.0</ele><time>2026-05-01T07:24:31.006Z</time></trkpt><trkpt lat="40.76360703715998" lon="8.968683997721422"><ele>615.0</ele><time>2026-05-01T07:24:33.006Z</time></trkpt><trkpt lat="40.763653485824115" lon="8.968623269554607"><ele>615.0</ele><time>2026-05-01T07:24:34.006Z</time></trkpt><trkpt lat="40.763698550289085" lon="8.968562662193172"><ele>615.0</ele><time>2026-05-01T07:24:35.006Z</time></trkpt><trkpt lat="40.7637446501446" lon="8.968499220505077"><ele>615.0</ele><time>2026-05-01T07:24:36.006Z</time></trkpt><trkpt lat="40.76379309508964" lon="8.968434019692905"><ele>615.8333333333334</ele><time>2026-05-01T07:24:37.006Z</time></trkpt><trkpt lat="40.76383355153168" lon="8.968367186845564"><ele>616.6666666666666</ele><time>2026-05-01T07:24:38.006Z</time></trkpt><trkpt lat="40.76386808830168" lon="8.968289815364955"><ele>617.5</ele><time>2026-05-01T07:24:39.006Z</time></trkpt><trkpt lat="40.763905023886075" lon="8.968194496950533"><ele>618.3333333333333</ele><time>2026-05-01T07:24:40.006Z</time></trkpt><trkpt lat="40.76393125198204" lon="8.968104615985931"><ele>619.1666666666666</ele><time>2026-05-01T07:24:41.006Z</time></trkpt><trkpt lat="40.76394860108892" lon="8.967959206394063"><ele>620.0</ele><time>2026-05-01T07:24:43.006Z</time></trkpt><trkpt lat="40.763946919852486" lon="8.967798091662162"><ele>621.3333333333333</ele><time>2026-05-01T07:24:45.006Z</time></trkpt><trkpt lat="40.763949344852705" lon="8.967714327836411"><ele>622.6666666666666</ele><time>2026-05-01T07:24:46.006Z</time></trkpt><trkpt lat="40.76394329686768" lon="8.96762045681693"><ele>624.0</ele><time>2026-05-01T07:24:47.006Z</time></trkpt><trkpt lat="40.76396813727379" lon="8.967457054493016"><ele>625.3333333333334</ele><time>2026-05-01T07:24:49.006Z</time></trkpt><trkpt lat="40.763982881590884" lon="8.967370840109785"><ele>626.6666666666667</ele><time>2026-05-01T07:24:50.006Z</time></trkpt><trkpt lat="40.76400867301681" lon="8.9672151876041"><ele>628.0</ele><time>2026-05-01T07:24:52.006Z</time></trkpt><trkpt lat="40.76404152563329" lon="8.967124045397409"><ele>629.75</ele><time>2026-05-01T07:24:54.006Z</time></trkpt><trkpt lat="40.76414128577739" lon="8.96708309898211"><ele>631.5</ele><time>2026-05-01T07:24:57.006Z</time></trkpt><trkpt lat="40.764200884291554" lon="8.967112576458632"><ele>633.25</ele><time>2026-05-01T07:24:58.006Z</time></trkpt><trkpt lat="40.76430752976666" lon="8.966809154553085"><ele>635.0</ele><time>2026-05-01T07:24:59.006Z</time></trkpt><trkpt lat="40.76438926868991" lon="8.966886448311946"><ele>635.1666666666666</ele><time>2026-05-01T07:25:01.006Z</time></trkpt><trkpt lat="40.7644274117061" lon="8.967027015321301"><ele>635.3333333333333</ele><time>2026-05-01T07:25:03.006Z</time></trkpt><trkpt lat="40.764436674322994" lon="8.967197721157373"><ele>635.5</ele><time>2026-05-01T07:25:05.006Z</time></trkpt><trkpt lat="40.76443816209041" lon="8.967289289196483"><ele>635.6666666666666</ele><time>2026-05-01T07:25:06.006Z</time></trkpt><trkpt lat="40.764450431246715" lon="8.967371782307165"><ele>635.8333333333334</ele><time>2026-05-01T07:25:07.006Z</time></trkpt><trkpt lat="40.764470234315006" lon="8.96745390810549"><ele>636.0</ele><time>2026-05-01T07:25:08.006Z</time></trkpt><trkpt lat="40.7644983535751" lon="8.96754952976958"><ele>636.0</ele><time>2026-05-01T07:25:09.006Z</time></trkpt><trkpt lat="40.76452431548996" lon="8.967642578191771"><ele>636.0</ele><time>2026-05-01T07:25:09.998Z</time></trkpt><trkpt lat="40.76454669187851" lon="8.967744549874826"><ele>636.0</ele><time>2026-05-01T07:25:10.998Z</time></trkpt><trkpt lat="40.76456760138908" lon="8.967847480288476"><ele>636.0</ele><time>2026-05-01T07:25:11.998Z</time></trkpt><trkpt lat="40.76458609900322" lon="8.967939924065487"><ele>636.0</ele><time>2026-05-01T07:25:12.998Z</time></trkpt><trkpt lat="40.764608242150445" lon="8.968027096204793"><ele>636.0</ele><time>2026-05-01T07:25:13.998Z</time></trkpt><trkpt lat="40.76463727349576" lon="8.9681114198388"><ele>636.0</ele><time>2026-05-01T07:25:14.998Z</time></trkpt><trkpt lat="40.764676666981295" lon="8.968194087797693"><ele>636.0</ele><time>2026-05-01T07:25:15.998Z</time></trkpt><trkpt lat="40.764729373087725" lon="8.968266018119081"><ele>636.0</ele><time>2026-05-01T07:25:16.998Z</time></trkpt><trkpt lat="40.76479251466467" lon="8.968335687584508"><ele>636.0</ele><time>2026-05-01T07:25:17.998Z</time></trkpt><trkpt lat="40.76485613074849" lon="8.96840040432914"><ele>636.0</ele><time>2026-05-01T07:25:18.998Z</time></trkpt><trkpt lat="40.76491907249498" lon="8.968451682913388"><ele>636.0</ele><time>2026-05-01T07:25:19.998Z</time></trkpt><trkpt lat="40.764985424763516" lon="8.968488565691576"><ele>636.0</ele><time>2026-05-01T07:25:20.998Z</time></trkpt><trkpt lat="40.76505583210486" lon="8.968507511185983"><ele>635.6666666666666</ele><time>2026-05-01T07:25:21.998Z</time></trkpt><trkpt lat="40.76512078004903" lon="8.96854841516075"><ele>635.3333333333334</ele><time>2026-05-01T07:25:22.998Z</time></trkpt><trkpt lat="40.765178678140906" lon="8.968606635984026"><ele>635.0</ele><time>2026-05-01T07:25:23.998Z</time></trkpt><trkpt lat="40.76522212781652" lon="8.968675589376502"><ele>634.6666666666667</ele><time>2026-05-01T07:25:24.998Z</time></trkpt><trkpt lat="40.765256626613194" lon="8.9688181767412"><ele>634.3333333333334</ele><time>2026-05-01T07:25:26.998Z</time></trkpt><trkpt lat="40.765255135798725" lon="8.968901293196167"><ele>634.0</ele><time>2026-05-01T07:25:27.998Z</time></trkpt><trkpt lat="40.765250282855696" lon="8.969006711397503"><ele>635.8333333333334</ele><time>2026-05-01T07:25:28.998Z</time></trkpt><trkpt lat="40.7652485175039" lon="8.969094982841142"><ele>637.6666666666667</ele><time>2026-05-01T07:25:29.998Z</time></trkpt><trkpt lat="40.7652542711942" lon="8.969186274940878"><ele>639.5</ele><time>2026-05-01T07:25:30.998Z</time></trkpt><trkpt lat="40.76531375563943" lon="8.96933269636384"><ele>641.3333333333334</ele><time>2026-05-01T07:25:32.998Z</time></trkpt><trkpt lat="40.76535956340001" lon="8.969392899984673"><ele>643.1666666666666</ele><time>2026-05-01T07:25:33.998Z</time></trkpt><trkpt lat="40.7654134972498" lon="8.969466517670789"><ele>645.0</ele><time>2026-05-01T07:25:34.998Z</time></trkpt><trkpt lat="40.765467782424544" lon="8.969546714448127"><ele>645.0</ele><time>2026-05-01T07:25:35.998Z</time></trkpt><trkpt lat="40.76551709264978" lon="8.969626718511378"><ele>645.0</ele><time>2026-05-01T07:25:36.998Z</time></trkpt><trkpt lat="40.76556671305617" lon="8.969726794720101"><ele>645.0</ele><time>2026-05-01T07:25:37.998Z</time></trkpt><trkpt lat="40.76561209251973" lon="8.969818567966447"><ele>645.0</ele><time>2026-05-01T07:25:38.998Z</time></trkpt><trkpt lat="40.76565707802957" lon="8.969910085946578"><ele>645.0</ele><time>2026-05-01T07:25:39.998Z</time></trkpt><trkpt lat="40.76570435748143" lon="8.970013877854608"><ele>645.0</ele><time>2026-05-01T07:25:40.998Z</time></trkpt><trkpt lat="40.765739593929325" lon="8.970103959880687"><ele>644.6666666666666</ele><time>2026-05-01T07:25:41.998Z</time></trkpt><trkpt lat="40.76578549785274" lon="8.970206884039872"><ele>644.3333333333334</ele><time>2026-05-01T07:25:42.998Z</time></trkpt><trkpt lat="40.76582358444276" lon="8.97030508561858"><ele>644.0</ele><time>2026-05-01T07:25:43.998Z</time></trkpt><trkpt lat="40.765865357102335" lon="8.970389821820902"><ele>643.6666666666667</ele><time>2026-05-01T07:25:44.998Z</time></trkpt><trkpt lat="40.7659138493543" lon="8.97046208673486"><ele>643.3333333333334</ele><time>2026-05-01T07:25:46.998Z</time></trkpt><trkpt lat="40.76597195860448" lon="8.970530535435673"><ele>643.0</ele><time>2026-05-01T07:25:48.998Z</time></trkpt><trkpt lat="40.766035223212576" lon="8.970578090921917"><ele>643.8333333333334</ele><time>2026-05-01T07:25:49.998Z</time></trkpt><trkpt lat="40.76609947689492" lon="8.970637155838203"><ele>644.6666666666667</ele><time>2026-05-01T07:25:50.998Z</time></trkpt><trkpt lat="40.76616088937777" lon="8.970690560710667"><ele>645.5</ele><time>2026-05-01T07:25:51.998Z</time></trkpt><trkpt lat="40.76623211205671" lon="8.970727574875156"><ele>646.3333333333334</ele><time>2026-05-01T07:25:52.998Z</time></trkpt><trkpt lat="40.76629180529398" lon="8.970768675207008"><ele>647.1666666666666</ele><time>2026-05-01T07:25:53.998Z</time></trkpt><trkpt lat="40.7663570292682" lon="8.970820228214073"><ele>648.0</ele><time>2026-05-01T07:25:54.998Z</time></trkpt><trkpt lat="40.76643016762225" lon="8.970882720134545"><ele>648.0</ele><time>2026-05-01T07:25:55.998Z</time></trkpt><trkpt lat="40.7665069285103" lon="8.970951381523623"><ele>648.0</ele><time>2026-05-01T07:25:56.998Z</time></trkpt><trkpt lat="40.76657575122829" lon="8.971027214827128"><ele>648.0</ele><time>2026-05-01T07:25:57.997Z</time></trkpt><trkpt lat="40.76664220619614" lon="8.971109890705499"><ele>648.0</ele><time>2026-05-01T07:25:58.997Z</time></trkpt><trkpt lat="40.76669522411295" lon="8.971188778028143"><ele>648.0</ele><time>2026-05-01T07:25:59.997Z</time></trkpt><trkpt lat="40.7667355258649" lon="8.971296033320487"><ele>648.0</ele><time>2026-05-01T07:26:00.997Z</time></trkpt><trkpt lat="40.76677063284672" lon="8.971405859991695"><ele>648.0</ele><time>2026-05-01T07:26:01.997Z</time></trkpt><trkpt lat="40.76679619724499" lon="8.971513838222277"><ele>648.0</ele><time>2026-05-01T07:26:02.997Z</time></trkpt><trkpt lat="40.766811386889266" lon="8.9716268609992"><ele>648.0</ele><time>2026-05-01T07:26:03.997Z</time></trkpt><trkpt lat="40.766800809500175" lon="8.97174095549589"><ele>648.0</ele><time>2026-05-01T07:26:04.997Z</time></trkpt><trkpt lat="40.76678622047173" lon="8.971839173415027"><ele>648.0</ele><time>2026-05-01T07:26:05.997Z</time></trkpt><trkpt lat="40.76675935233528" lon="8.971932683312263"><ele>648.0</ele><time>2026-05-01T07:26:06.997Z</time></trkpt><trkpt lat="40.76672846721027" lon="8.972036836259203"><ele>648.3333333333334</ele><time>2026-05-01T07:26:07.998Z</time></trkpt><trkpt lat="40.76670842806673" lon="8.972140850675391"><ele>648.6666666666666</ele><time>2026-05-01T07:26:08.998Z</time></trkpt><trkpt lat="40.766697198162895" lon="8.972256846053341"><ele>649.0</ele><time>2026-05-01T07:26:09.998Z</time></trkpt><trkpt lat="40.766699307901156" lon="8.972369170491861"><ele>649.3333333333333</ele><time>2026-05-01T07:26:10.998Z</time></trkpt><trkpt lat="40.76671355489303" lon="8.972484457128997"><ele>649.6666666666666</ele><time>2026-05-01T07:26:11.998Z</time></trkpt><trkpt lat="40.76673607108544" lon="8.97257638953647"><ele>650.0</ele><time>2026-05-01T07:26:12.998Z</time></trkpt><trkpt lat="40.766758990396426" lon="8.972680120084533"><ele>650.0</ele><time>2026-05-01T07:26:13.998Z</time></trkpt><trkpt lat="40.76678565570163" lon="8.972785506818195"><ele>650.0</ele><time>2026-05-01T07:26:14.998Z</time></trkpt><trkpt lat="40.76681069220762" lon="8.972891557980715"><ele>650.0</ele><time>2026-05-01T07:26:15.998Z</time></trkpt><trkpt lat="40.76683928059384" lon="8.973004070922395"><ele>650.0</ele><time>2026-05-01T07:26:16.998Z</time></trkpt><trkpt lat="40.76688095365481" lon="8.97308692378927"><ele>650.0</ele><time>2026-05-01T07:26:17.998Z</time></trkpt><trkpt lat="40.7669315833436" lon="8.973165439773533"><ele>650.0</ele><time>2026-05-01T07:26:18.998Z</time></trkpt><trkpt lat="40.766992003424704" lon="8.973253769450155"><ele>650.8333333333333</ele><time>2026-05-01T07:26:19.998Z</time></trkpt><trkpt lat="40.767047874981905" lon="8.973336870740908"><ele>651.6666666666666</ele><time>2026-05-01T07:26:20.998Z</time></trkpt><trkpt lat="40.7670945946137" lon="8.97341821121213"><ele>652.5</ele><time>2026-05-01T07:26:21.998Z</time></trkpt><trkpt lat="40.767117452666284" lon="8.97350368098645"><ele>653.3333333333334</ele><time>2026-05-01T07:26:22.998Z</time></trkpt><trkpt lat="40.76713912824182" lon="8.97359349074153"><ele>654.1666666666667</ele><time>2026-05-01T07:26:23.998Z</time></trkpt><trkpt lat="40.767162197389055" lon="8.973696656334283"><ele>655.0</ele><time>2026-05-01T07:26:24.998Z</time></trkpt><trkpt lat="40.767176874168186" lon="8.973809706486461"><ele>655.0</ele><time>2026-05-01T07:26:25.998Z</time></trkpt><trkpt lat="40.76719706680485" lon="8.973929946391138"><ele>655.0</ele><time>2026-05-01T07:26:26.998Z</time></trkpt><trkpt lat="40.7672054594028" lon="8.974054427204258"><ele>655.0</ele><time>2026-05-01T07:26:27.998Z</time></trkpt><trkpt lat="40.76721616883022" lon="8.974173975954331"><ele>655.0</ele><time>2026-05-01T07:26:28.998Z</time></trkpt><trkpt lat="40.76722284591435" lon="8.97429771465915"><ele>655.0</ele><time>2026-05-01T07:26:29.998Z</time></trkpt><trkpt lat="40.76722975371111" lon="8.974423090246646"><ele>655.6</ele><time>2026-05-01T07:26:30.998Z</time></trkpt><trkpt lat="40.76723290812911" lon="8.97454112894048"><ele>656.2</ele><time>2026-05-01T07:26:31.998Z</time></trkpt><trkpt lat="40.76723800269699" lon="8.97466254644402"><ele>656.8</ele><time>2026-05-01T07:26:32.998Z</time></trkpt><trkpt lat="40.76724457247875" lon="8.974774302066526"><ele>657.4</ele><time>2026-05-01T07:26:33.998Z</time></trkpt><trkpt lat="40.76724592959509" lon="8.974891577532242"><ele>658.0</ele><time>2026-05-01T07:26:34.998Z</time></trkpt><trkpt lat="40.767245174692114" lon="8.97501835131778"><ele>657.8</ele><time>2026-05-01T07:26:35.998Z</time></trkpt><trkpt lat="40.76723964618028" lon="8.975147983814102"><ele>657.5999999999999</ele><time>2026-05-01T07:26:36.998Z</time></trkpt><trkpt lat="40.76723908291086" lon="8.975271171652624"><ele>657.4000000000001</ele><time>2026-05-01T07:26:37.998Z</time></trkpt><trkpt lat="40.76723299018417" lon="8.97540379687713"><ele>657.2</ele><time>2026-05-01T07:26:38.998Z</time></trkpt><trkpt lat="40.767233056342654" lon="8.975519837972948"><ele>657.0</ele><time>2026-05-01T07:26:39.998Z</time></trkpt><trkpt lat="40.767242442527674" lon="8.975630037641888"><ele>657.0</ele><time>2026-05-01T07:26:40.998Z</time></trkpt><trkpt lat="40.767251004031934" lon="8.975718391343621"><ele>657.0</ele><time>2026-05-01T07:26:41.998Z</time></trkpt><trkpt lat="40.76729907797202" lon="8.975826958495734"><ele>657.0</ele><time>2026-05-01T07:26:42.998Z</time></trkpt><trkpt lat="40.767350049749716" lon="8.9759403320681"><ele>657.0</ele><time>2026-05-01T07:26:43.998Z</time></trkpt><trkpt lat="40.7674131748213" lon="8.976042641773251"><ele>657.0</ele><time>2026-05-01T07:26:44.998Z</time></trkpt><trkpt lat="40.76747741016157" lon="8.976151605700938"><ele>657.4000000000001</ele><time>2026-05-01T07:26:45.998Z</time></trkpt><trkpt lat="40.76754416954665" lon="8.976263786873686"><ele>657.8000000000001</ele><time>2026-05-01T07:26:46.998Z</time></trkpt><trkpt lat="40.76761711781902" lon="8.976373150302656"><ele>658.2</ele><time>2026-05-01T07:26:47.998Z</time></trkpt><trkpt lat="40.7676836295805" lon="8.976470428583283"><ele>658.6</ele><time>2026-05-01T07:26:48.998Z</time></trkpt><trkpt lat="40.76774071698422" lon="8.976568993950485"><ele>659.0</ele><time>2026-05-01T07:26:49.998Z</time></trkpt><trkpt lat="40.767796254798604" lon="8.976646154661294"><ele>658.0</ele><time>2026-05-01T07:26:50.998Z</time></trkpt><trkpt lat="40.767850511172476" lon="8.976730394708127"><ele>657.0</ele><time>2026-05-01T07:26:51.998Z</time></trkpt><trkpt lat="40.76790352395635" lon="8.976813558767798"><ele>656.0</ele><time>2026-05-01T07:26:52.998Z</time></trkpt><trkpt lat="40.767960383012664" lon="8.97689989504393"><ele>655.0</ele><time>2026-05-01T07:26:53.998Z</time></trkpt><trkpt lat="40.768011303058515" lon="8.977026169535717"><ele>654.0</ele><time>2026-05-01T07:26:54.998Z</time></trkpt><trkpt lat="40.76805125020317" lon="8.977143949049612"><ele>654.0</ele><time>2026-05-01T07:26:55.998Z</time></trkpt><trkpt lat="40.768088999251795" lon="8.97725883612532"><ele>654.0</ele><time>2026-05-01T07:26:56.998Z</time></trkpt><trkpt lat="40.76814107395634" lon="8.977376233137196"><ele>654.0</ele><time>2026-05-01T07:26:57.998Z</time></trkpt><trkpt lat="40.76820716085694" lon="8.9774753026096"><ele>654.0</ele><time>2026-05-01T07:26:58.998Z</time></trkpt><trkpt lat="40.76827925219242" lon="8.977571148911595"><ele>654.0</ele><time>2026-05-01T07:26:59.998Z</time></trkpt><trkpt lat="40.76836156302555" lon="8.977671540048265"><ele>653.4000000000001</ele><time>2026-05-01T07:27:00.998Z</time></trkpt><trkpt lat="40.76843851747517" lon="8.977745821260234"><ele>652.8</ele><time>2026-05-01T07:27:01.998Z</time></trkpt><trkpt lat="40.76852358908996" lon="8.977823404030891"><ele>652.2</ele><time>2026-05-01T07:27:02.998Z</time></trkpt><trkpt lat="40.76859822663831" lon="8.977910901856598"><ele>651.5999999999999</ele><time>2026-05-01T07:27:03.998Z</time></trkpt><trkpt lat="40.76867531932435" lon="8.977991809432984"><ele>651.0</ele><time>2026-05-01T07:27:04.998Z</time></trkpt><trkpt lat="40.768752517634944" lon="8.978072147366605"><ele>651.0</ele><time>2026-05-01T07:27:05.998Z</time></trkpt><trkpt lat="40.76882890790506" lon="8.97814854160886"><ele>651.0</ele><time>2026-05-01T07:27:06.998Z</time></trkpt><trkpt lat="40.76889662683019" lon="8.97821604165191"><ele>651.0</ele><time>2026-05-01T07:27:07.998Z</time></trkpt><trkpt lat="40.76895508526346" lon="8.978262670616182"><ele>651.0</ele><time>2026-05-01T07:27:08.998Z</time></trkpt><trkpt lat="40.76905928472866" lon="8.978327996334764"><ele>651.0</ele><time>2026-05-01T07:27:10.998Z</time></trkpt><trkpt lat="40.769172871934764" lon="8.978345850469712"><ele>651.0</ele><time>2026-05-01T07:27:12.998Z</time></trkpt><trkpt lat="40.76928924072884" lon="8.978304204804699"><ele>651.0</ele><time>2026-05-01T07:27:14.998Z</time></trkpt><trkpt lat="40.769387618637865" lon="8.9781719389267"><ele>651.0</ele><time>2026-05-01T07:27:16.998Z</time></trkpt><trkpt lat="40.769465832171356" lon="8.978015581655745"><ele>651.0</ele><time>2026-05-01T07:27:18.998Z</time></trkpt><trkpt lat="40.76950089615284" lon="8.977920696462405"><ele>650.0</ele><time>2026-05-01T07:27:19.998Z</time></trkpt><trkpt lat="40.76953605533176" lon="8.977817455973804"><ele>649.0</ele><time>2026-05-01T07:27:20.998Z</time></trkpt><trkpt lat="40.769569787462096" lon="8.977738129934044"><ele>648.0</ele><time>2026-05-01T07:27:21.998Z</time></trkpt><trkpt lat="40.769610068472566" lon="8.977652942903628"><ele>647.0</ele><time>2026-05-01T07:27:22.998Z</time></trkpt><trkpt lat="40.76964609922801" lon="8.977576397862737"><ele>646.0</ele><time>2026-05-01T07:27:23.998Z</time></trkpt><trkpt lat="40.769709197828725" lon="8.977556182594526"><ele>645.0</ele><time>2026-05-01T07:27:24.998Z</time></trkpt><trkpt lat="40.769786849682646" lon="8.97757095112971"><ele>644.0</ele><time>2026-05-01T07:27:25.998Z</time></trkpt><trkpt lat="40.76986250232446" lon="8.977553894787777"><ele>644.0</ele><time>2026-05-01T07:27:26.998Z</time></trkpt><trkpt lat="40.7699445325207" lon="8.977574678227294"><ele>644.0</ele><time>2026-05-01T07:27:27.998Z</time></trkpt><trkpt lat="40.77002199975631" lon="8.97757119686593"><ele>644.0</ele><time>2026-05-01T07:27:28.998Z</time></trkpt><trkpt lat="40.77011814599718" lon="8.977557871751387"><ele>644.0</ele><time>2026-05-01T07:27:29.998Z</time></trkpt><trkpt lat="40.77019925337689" lon="8.97750706191382"><ele>644.0</ele><time>2026-05-01T07:27:30.998Z</time></trkpt><trkpt lat="40.77025945193387" lon="8.977472857062793"><ele>644.0</ele><time>2026-05-01T07:27:31.998Z</time></trkpt><trkpt lat="40.77033519709202" lon="8.977430677823278"><ele>646.6666666666666</ele><time>2026-05-01T07:27:32.998Z</time></trkpt><trkpt lat="40.770412002259086" lon="8.977392941857508"><ele>649.3333333333333</ele><time>2026-05-01T07:27:33.998Z</time></trkpt><trkpt lat="40.77048606105509" lon="8.977356555246073"><ele>652.0</ele><time>2026-05-01T07:27:34.998Z</time></trkpt><trkpt lat="40.77058084392056" lon="8.977318280066845"><ele>654.6666666666666</ele><time>2026-05-01T07:27:35.998Z</time></trkpt><trkpt lat="40.77067878967729" lon="8.977296295689168"><ele>657.3333333333334</ele><time>2026-05-01T07:27:36.998Z</time></trkpt><trkpt lat="40.7707665360468" lon="8.977300740719423"><ele>660.0</ele><time>2026-05-01T07:27:37.998Z</time></trkpt><trkpt lat="40.770884853634236" lon="8.977320062068909"><ele>660.0</ele><time>2026-05-01T07:27:39.998Z</time></trkpt><trkpt lat="40.77097078452725" lon="8.977339105368156"><ele>660.0</ele><time>2026-05-01T07:27:40.998Z</time></trkpt><trkpt lat="40.77103613719144" lon="8.977353588287155"><ele>660.0</ele><time>2026-05-01T07:27:41.998Z</time></trkpt><trkpt lat="40.771101389276375" lon="8.977368048918606"><ele>660.0</ele><time>2026-05-01T07:27:42.998Z</time></trkpt><trkpt lat="40.77122954445308" lon="8.977403482446958"><ele>660.0</ele><time>2026-05-01T07:27:44.998Z</time></trkpt><trkpt lat="40.77132044682128" lon="8.977417940022342"><ele>660.0</ele><time>2026-05-01T07:27:45.998Z</time></trkpt><trkpt lat="40.77139526560592" lon="8.977414927669466"><ele>660.4</ele><time>2026-05-01T07:27:46.998Z</time></trkpt><trkpt lat="40.771495490903035" lon="8.977404362876378"><ele>660.8</ele><time>2026-05-01T07:27:47.998Z</time></trkpt><trkpt lat="40.771632312866416" lon="8.977363507698014"><ele>661.2</ele><time>2026-05-01T07:27:48.998Z</time></trkpt><trkpt lat="40.7717246851468" lon="8.977345611632932"><ele>661.6</ele><time>2026-05-01T07:27:49.998Z</time></trkpt><trkpt lat="40.771820190558245" lon="8.977315565581629"><ele>662.0</ele><time>2026-05-01T07:27:50.998Z</time></trkpt><trkpt lat="40.77191490281792" lon="8.977300779081046"><ele>662.0</ele><time>2026-05-01T07:27:51.998Z</time></trkpt><trkpt lat="40.77200051826143" lon="8.977256838449529"><ele>662.0</ele><time>2026-05-01T07:27:52.998Z</time></trkpt><trkpt lat="40.77207649712771" lon="8.97719313170117"><ele>662.0</ele><time>2026-05-01T07:27:53.998Z</time></trkpt><trkpt lat="40.77214303827659" lon="8.97712416143324"><ele>662.0</ele><time>2026-05-01T07:27:54.998Z</time></trkpt><trkpt lat="40.772206869836786" lon="8.977067535366587"><ele>662.0</ele><time>2026-05-01T07:27:55.998Z</time></trkpt><trkpt lat="40.772275380138105" lon="8.977008437008168"><ele>662.0</ele><time>2026-05-01T07:27:56.998Z</time></trkpt><trkpt lat="40.772338221867216" lon="8.976940841119731"><ele>662.0</ele><time>2026-05-01T07:27:57.998Z</time></trkpt><trkpt lat="40.772399779641916" lon="8.976898927529346"><ele>662.0</ele><time>2026-05-01T07:27:58.998Z</time></trkpt><trkpt lat="40.77245668321476" lon="8.976848835047765"><ele>662.0</ele><time>2026-05-01T07:27:59.996Z</time></trkpt><trkpt lat="40.7725552147978" lon="8.976911037066445"><ele>662.0</ele><time>2026-05-01T07:28:00.997Z</time></trkpt><trkpt lat="40.772618873156055" lon="8.976909773910071"><ele>662.0</ele><time>2026-05-01T07:28:01.997Z</time></trkpt><trkpt lat="40.772717859278075" lon="8.976924871458703"><ele>662.0</ele><time>2026-05-01T07:28:03.996Z</time></trkpt><trkpt lat="40.77278145555557" lon="8.976924991020764"><ele>662.4000000000001</ele><time>2026-05-01T07:28:04.996Z</time></trkpt><trkpt lat="40.77287438159722" lon="8.976936422886618"><ele>662.8000000000001</ele><time>2026-05-01T07:28:05.996Z</time></trkpt><trkpt lat="40.77296626560423" lon="8.976980446249996"><ele>663.2</ele><time>2026-05-01T07:28:06.997Z</time></trkpt><trkpt lat="40.773026231828304" lon="8.977031576173525"><ele>663.6</ele><time>2026-05-01T07:28:07.997Z</time></trkpt><trkpt lat="40.77311740084523" lon="8.977106467677324"><ele>664.0</ele><time>2026-05-01T07:28:09.997Z</time></trkpt><trkpt lat="40.77320463837666" lon="8.97718019074175"><ele>664.0</ele><time>2026-05-01T07:28:30.996Z</time></trkpt><trkpt lat="40.77325048428512" lon="8.97727183247086"><ele>664.0</ele><time>2026-05-01T07:28:32.996Z</time></trkpt><trkpt lat="40.77332227494823" lon="8.977394388204672"><ele>664.0</ele><time>2026-05-01T07:28:34.996Z</time></trkpt><trkpt lat="40.77336515461832" lon="8.977459970988809"><ele>664.0</ele><time>2026-05-01T07:28:35.996Z</time></trkpt><trkpt lat="40.773423038307335" lon="8.977574594615758"><ele>664.0</ele><time>2026-05-01T07:28:37.996Z</time></trkpt><trkpt lat="40.77342904305297" lon="8.977728086899631"><ele>663.0</ele><time>2026-05-01T07:28:39.996Z</time></trkpt><trkpt lat="40.77340867227425" lon="8.977826888677926"><ele>662.0</ele><time>2026-05-01T07:28:40.996Z</time></trkpt><trkpt lat="40.773384339399726" lon="8.97793254518139"><ele>661.0</ele><time>2026-05-01T07:28:41.996Z</time></trkpt><trkpt lat="40.773371450146946" lon="8.978037408286776"><ele>660.0</ele><time>2026-05-01T07:28:42.996Z</time></trkpt><trkpt lat="40.77335227379358" lon="8.9781521787919"><ele>659.0</ele><time>2026-05-01T07:28:43.996Z</time></trkpt><trkpt lat="40.773342995342524" lon="8.978274201167746"><ele>658.0</ele><time>2026-05-01T07:28:44.996Z</time></trkpt><trkpt lat="40.773330469661936" lon="8.978396867067302"><ele>656.4</ele><time>2026-05-01T07:28:45.996Z</time></trkpt><trkpt lat="40.77332394974178" lon="8.978529727813191"><ele>654.8</ele><time>2026-05-01T07:28:46.996Z</time></trkpt><trkpt lat="40.7732974040013" lon="8.978669350091756"><ele>653.2</ele><time>2026-05-01T07:28:47.996Z</time></trkpt><trkpt lat="40.77328705129912" lon="8.978813108076583"><ele>651.6</ele><time>2026-05-01T07:28:48.996Z</time></trkpt><trkpt lat="40.77327807598504" lon="8.978950920892578"><ele>650.0</ele><time>2026-05-01T07:28:49.996Z</time></trkpt><trkpt lat="40.773271378257725" lon="8.979090535562973"><ele>648.0</ele><time>2026-05-01T07:28:50.996Z</time></trkpt><trkpt lat="40.77326491775858" lon="8.979221372457392"><ele>646.0</ele><time>2026-05-01T07:28:51.996Z</time></trkpt><trkpt lat="40.77326170595016" lon="8.979335041084092"><ele>644.0</ele><time>2026-05-01T07:28:52.996Z</time></trkpt><trkpt lat="40.77326006368798" lon="8.97943155445777"><ele>642.0</ele><time>2026-05-01T07:28:53.996Z</time></trkpt><trkpt lat="40.77325859645583" lon="8.979517781528545"><ele>640.0</ele><time>2026-05-01T07:28:54.996Z</time></trkpt><trkpt lat="40.77325607759406" lon="8.979601260276999"><ele>638.0</ele><time>2026-05-01T07:28:55.996Z</time></trkpt><trkpt lat="40.773252400757364" lon="8.979689466527208"><ele>638.0</ele><time>2026-05-01T07:28:56.996Z</time></trkpt><trkpt lat="40.773237011627764" lon="8.979826954326601"><ele>638.0</ele><time>2026-05-01T07:28:58.996Z</time></trkpt><trkpt lat="40.77318575613278" lon="8.97991952173201"><ele>638.0</ele><time>2026-05-01T07:29:00.996Z</time></trkpt><trkpt lat="40.7730778741357" lon="8.979996679767517"><ele>638.0</ele><time>2026-05-01T07:29:02.996Z</time></trkpt><trkpt lat="40.77301261118839" lon="8.980029523544147"><ele>638.0</ele><time>2026-05-01T07:29:03.996Z</time></trkpt><trkpt lat="40.77294313893094" lon="8.980036723595875"><ele>635.3333333333333</ele><time>2026-05-01T07:29:04.996Z</time></trkpt><trkpt lat="40.77286748001865" lon="8.98003584573953"><ele>632.6666666666666</ele><time>2026-05-01T07:29:05.996Z</time></trkpt><trkpt lat="40.77279815417302" lon="8.980034911317599"><ele>630.0</ele><time>2026-05-01T07:29:06.996Z</time></trkpt><trkpt lat="40.77273308214385" lon="8.980032793013416"><ele>627.3333333333334</ele><time>2026-05-01T07:29:07.996Z</time></trkpt><trkpt lat="40.77266161140043" lon="8.980078754091721"><ele>624.6666666666667</ele><time>2026-05-01T07:29:09.996Z</time></trkpt><trkpt lat="40.77265621484878" lon="8.98017695656079"><ele>622.0</ele><time>2026-05-01T07:29:11.996Z</time></trkpt><trkpt lat="40.77270905676237" lon="8.980267094990724"><ele>622.0</ele><time>2026-05-01T07:29:12.996Z</time></trkpt><trkpt lat="40.77277158259548" lon="8.980328678062193"><ele>622.0</ele><time>2026-05-01T07:29:13.996Z</time></trkpt><trkpt lat="40.77282733867807" lon="8.980384242954111"><ele>622.0</ele><time>2026-05-01T07:29:14.996Z</time></trkpt><trkpt lat="40.77289637114717" lon="8.980431347504709"><ele>622.0</ele><time>2026-05-01T07:29:15.997Z</time></trkpt><trkpt lat="40.77295542711342" lon="8.980516345217056"><ele>622.0</ele><time>2026-05-01T07:29:16.997Z</time></trkpt><trkpt lat="40.773019227374796" lon="8.980593003426074"><ele>622.0</ele><time>2026-05-01T07:29:17.997Z</time></trkpt><trkpt lat="40.77309593833552" lon="8.980667049643442"><ele>622.0</ele><time>2026-05-01T07:29:18.997Z</time></trkpt><trkpt lat="40.773171629612165" lon="8.980738147809923"><ele>622.0</ele><time>2026-05-01T07:29:19.997Z</time></trkpt><trkpt lat="40.77325390537089" lon="8.98080908763634"><ele>622.0</ele><time>2026-05-01T07:29:20.997Z</time></trkpt><trkpt lat="40.77333201166287" lon="8.980859601049891"><ele>622.0</ele><time>2026-05-01T07:29:21.997Z</time></trkpt><trkpt lat="40.77341328084917" lon="8.98089890497187"><ele>622.0</ele><time>2026-05-01T07:29:22.997Z</time></trkpt><trkpt lat="40.77350447023973" lon="8.980935403555787"><ele>621.8333333333334</ele><time>2026-05-01T07:29:23.997Z</time></trkpt><trkpt lat="40.773585741977584" lon="8.980963421353911"><ele>621.6666666666667</ele><time>2026-05-01T07:29:24.997Z</time></trkpt><trkpt lat="40.77366071371783" lon="8.980980086795979"><ele>621.5</ele><time>2026-05-01T07:29:25.997Z</time></trkpt><trkpt lat="40.77375949109069" lon="8.98095870076887"><ele>621.3333333333334</ele><time>2026-05-01T07:29:27.997Z</time></trkpt><trkpt lat="40.77382715188913" lon="8.980949820370782"><ele>621.1666666666666</ele><time>2026-05-01T07:29:28.997Z</time></trkpt><trkpt lat="40.77389285098056" lon="8.980890484486885"><ele>621.0</ele><time>2026-05-01T07:29:29.997Z</time></trkpt><trkpt lat="40.77395161004576" lon="8.980806047911901"><ele>621.0</ele><time>2026-05-01T07:29:30.997Z</time></trkpt><trkpt lat="40.774020151904075" lon="8.98070439593027"><ele>621.0</ele><time>2026-05-01T07:29:31.997Z</time></trkpt><trkpt lat="40.774068099679326" lon="8.980626141483047"><ele>621.0</ele><time>2026-05-01T07:29:32.997Z</time></trkpt><trkpt lat="40.77410867930366" lon="8.980559912538437"><ele>621.0</ele><time>2026-05-01T07:29:33.997Z</time></trkpt><trkpt lat="40.774153857163995" lon="8.980484361019057"><ele>621.0</ele><time>2026-05-01T07:29:35.997Z</time></trkpt><trkpt lat="40.77421137236765" lon="8.980539358771983"><ele>621.0</ele><time>2026-05-01T07:29:37.997Z</time></trkpt><trkpt lat="40.77416817696788" lon="8.980666741762743"><ele>621.0</ele><time>2026-05-01T07:29:39.997Z</time></trkpt><trkpt lat="40.774133209659325" lon="8.980819642596476"><ele>621.0</ele><time>2026-05-01T07:29:41.997Z</time></trkpt><trkpt lat="40.77412034991124" lon="8.980913528525946"><ele>621.0</ele><time>2026-05-01T07:29:42.997Z</time></trkpt><trkpt lat="40.774105380213655" lon="8.98102043385747"><ele>621.0</ele><time>2026-05-01T07:29:43.997Z</time></trkpt><trkpt lat="40.774095229098435" lon="8.981121055608147"><ele>621.0</ele><time>2026-05-01T07:29:44.997Z</time></trkpt><trkpt lat="40.77408030256466" lon="8.981219021244796"><ele>621.0</ele><time>2026-05-01T07:29:45.997Z</time></trkpt><trkpt lat="40.77406031302125" lon="8.981305081984745"><ele>617.1666666666666</ele><time>2026-05-01T07:29:46.997Z</time></trkpt><trkpt lat="40.77404564473193" lon="8.981401861658544"><ele>613.3333333333334</ele><time>2026-05-01T07:29:47.997Z</time></trkpt><trkpt lat="40.774021294222415" lon="8.98149112221496"><ele>609.5</ele><time>2026-05-01T07:29:48.997Z</time></trkpt><trkpt lat="40.773988590581396" lon="8.981574024566617"><ele>605.6666666666667</ele><time>2026-05-01T07:29:49.997Z</time></trkpt><trkpt lat="40.7739481335678" lon="8.981661949353823"><ele>601.8333333333334</ele><time>2026-05-01T07:29:50.997Z</time></trkpt><trkpt lat="40.7738975771997" lon="8.98175040874966"><ele>598.0</ele><time>2026-05-01T07:29:51.997Z</time></trkpt><trkpt lat="40.773845099278276" lon="8.981830908322921"><ele>594.1666666666667</ele><time>2026-05-01T07:29:52.997Z</time></trkpt><trkpt lat="40.7737914358177" lon="8.981898192005165"><ele>590.3333333333334</ele><time>2026-05-01T07:29:53.997Z</time></trkpt><trkpt lat="40.77373129617556" lon="8.981937623842642"><ele>586.5</ele><time>2026-05-01T07:29:54.997Z</time></trkpt><trkpt lat="40.77367246320029" lon="8.98202028486398"><ele>582.6666666666666</ele><time>2026-05-01T07:29:56.997Z</time></trkpt><trkpt lat="40.77363787503013" lon="8.982122421842963"><ele>578.8333333333333</ele><time>2026-05-01T07:29:58.997Z</time></trkpt><trkpt lat="40.77368118695766" lon="8.98225090911151"><ele>575.0</ele><time>2026-05-01T07:29:59.997Z</time></trkpt><trkpt lat="40.77379783071356" lon="8.982255814296579"><ele>575.0</ele><time>2026-05-01T07:30:00.997Z</time></trkpt><trkpt lat="40.773862639269616" lon="8.982202138098883"><ele>575.0</ele><time>2026-05-01T07:30:01.997Z</time></trkpt><trkpt lat="40.773904699584925" lon="8.98212383945699"><ele>575.0</ele><time>2026-05-01T07:30:03.997Z</time></trkpt><trkpt lat="40.773953760798356" lon="8.982056499132558"><ele>575.0</ele><time>2026-05-01T07:30:05.997Z</time></trkpt><trkpt lat="40.774010352885924" lon="8.981950198213314"><ele>575.0</ele><time>2026-05-01T07:30:08.997Z</time></trkpt><trkpt lat="40.77408048427945" lon="8.981884623160049"><ele>575.0</ele><time>2026-05-01T07:30:10.997Z</time></trkpt><trkpt lat="40.77415008473622" lon="8.981901383214844"><ele>575.0</ele><time>2026-05-01T07:30:13.996Z</time></trkpt><trkpt lat="40.7741355774747" lon="8.981989020169657"><ele>575.0</ele><time>2026-05-01T07:30:15.996Z</time></trkpt><trkpt lat="40.77412236221718" lon="8.98208151851303"><ele>575.0</ele><time>2026-05-01T07:30:17.996Z</time></trkpt><trkpt lat="40.77407723572432" lon="8.982233461510928"><ele>575.0</ele><time>2026-05-01T07:30:19.996Z</time></trkpt><trkpt lat="40.77407851615839" lon="8.982328721852173"><ele>575.0</ele><time>2026-05-01T07:30:20.996Z</time></trkpt><trkpt lat="40.77409026087515" lon="8.982426460996797"><ele>575.0</ele><time>2026-05-01T07:30:21.996Z</time></trkpt><trkpt lat="40.774066483834794" lon="8.982514802696798"><ele>572.1666666666666</ele><time>2026-05-01T07:30:22.996Z</time></trkpt><trkpt lat="40.77405418888406" lon="8.98260460392861"><ele>569.3333333333333</ele><time>2026-05-01T07:30:23.996Z</time></trkpt><trkpt lat="40.77403565325007" lon="8.98269095878052"><ele>566.5</ele><time>2026-05-01T07:30:24.996Z</time></trkpt><trkpt lat="40.77400759009986" lon="8.982767841951391"><ele>563.6666666666666</ele><time>2026-05-01T07:30:25.996Z</time></trkpt><trkpt lat="40.77393359618081" lon="8.982891408290678"><ele>560.8333333333334</ele><time>2026-05-01T07:30:27.996Z</time></trkpt><trkpt lat="40.773856165701986" lon="8.98299275607879"><ele>558.0</ele><time>2026-05-01T07:30:29.996Z</time></trkpt><trkpt lat="40.77379113028119" lon="8.983023384758726"><ele>558.0</ele><time>2026-05-01T07:30:31.996Z</time></trkpt><trkpt lat="40.77390044113338" lon="8.982938374624082"><ele>558.0</ele><time>2026-05-01T07:30:38.996Z</time></trkpt><trkpt lat="40.77406756163035" lon="8.98302074057944"><ele>558.0</ele><time>2026-05-01T07:30:40.996Z</time></trkpt><trkpt lat="40.774128013913014" lon="8.98292869555189"><ele>558.0</ele><time>2026-05-01T07:30:42.996Z</time></trkpt><trkpt lat="40.77415882927442" lon="8.982813860718746"><ele>558.0</ele><time>2026-05-01T07:30:44.996Z</time></trkpt><trkpt lat="40.7742183798085" lon="8.982744923818604"><ele>558.0</ele><time>2026-05-01T07:30:45.996Z</time></trkpt><trkpt lat="40.77425000300073" lon="8.982663068733196"><ele>558.0</ele><time>2026-05-01T07:30:46.996Z</time></trkpt><trkpt lat="40.77429319497797" lon="8.982580893362602"><ele>558.0</ele><time>2026-05-01T07:30:47.996Z</time></trkpt><trkpt lat="40.77433266155067" lon="8.982502155014291"><ele>558.0</ele><time>2026-05-01T07:30:48.996Z</time></trkpt><trkpt lat="40.77436003457293" lon="8.9824079571124"><ele>558.0</ele><time>2026-05-01T07:30:49.996Z</time></trkpt><trkpt lat="40.7744168188196" lon="8.982275250963106"><ele>557.0</ele><time>2026-05-01T07:30:51.996Z</time></trkpt><trkpt lat="40.774455285978576" lon="8.982206148304757"><ele>556.0</ele><time>2026-05-01T07:30:52.996Z</time></trkpt><trkpt lat="40.77450976194965" lon="8.98213773211744"><ele>555.0</ele><time>2026-05-01T07:30:53.996Z</time></trkpt><trkpt lat="40.77453508623035" lon="8.98205353458842"><ele>554.0</ele><time>2026-05-01T07:30:54.996Z</time></trkpt><trkpt lat="40.774582535685425" lon="8.981987361616685"><ele>553.0</ele><time>2026-05-01T07:30:55.996Z</time></trkpt><trkpt lat="40.77464330525884" lon="8.981964960814228"><ele>552.0</ele><time>2026-05-01T07:30:56.996Z</time></trkpt><trkpt lat="40.774766923755216" lon="8.98197238898294"><ele>552.0</ele><time>2026-05-01T07:30:58.996Z</time></trkpt><trkpt lat="40.774846166050956" lon="8.981979180183085"><ele>552.0</ele><time>2026-05-01T07:30:59.996Z</time></trkpt><trkpt lat="40.77492463622637" lon="8.982006375915715"><ele>552.0</ele><time>2026-05-01T07:31:00.996Z</time></trkpt><trkpt lat="40.77503681422219" lon="8.982068077199406"><ele>552.0</ele><time>2026-05-01T07:31:02.996Z</time></trkpt><trkpt lat="40.775100355964184" lon="8.982094699202928"><ele>552.0</ele><time>2026-05-01T07:31:03.996Z</time></trkpt><trkpt lat="40.77516953432029" lon="8.98211616871088"><ele>552.0</ele><time>2026-05-01T07:31:04.996Z</time></trkpt><trkpt lat="40.7752712900432" lon="8.982105830807159"><ele>552.3333333333334</ele><time>2026-05-01T07:31:05.996Z</time></trkpt><trkpt lat="40.77534659959939" lon="8.982112402830772"><ele>552.6666666666666</ele><time>2026-05-01T07:31:06.996Z</time></trkpt><trkpt lat="40.77545429217941" lon="8.982098954841316"><ele>553.0</ele><time>2026-05-01T07:31:08.996Z</time></trkpt><trkpt lat="40.77549552279105" lon="8.982027498144262"><ele>553.3333333333333</ele><time>2026-05-01T07:31:12.996Z</time></trkpt><trkpt lat="40.775521318152244" lon="8.981905821063563"><ele>553.6666666666666</ele><time>2026-05-01T07:31:17.996Z</time></trkpt><trkpt lat="40.7755292486879" lon="8.98179675324397"><ele>554.0</ele><time>2026-05-01T07:31:18.996Z</time></trkpt><trkpt lat="40.77556680018014" lon="8.981660740705916"><ele>558.8333333333333</ele><time>2026-05-01T07:31:19.996Z</time></trkpt><trkpt lat="40.7756136560415" lon="8.981556941601054"><ele>563.6666666666666</ele><time>2026-05-01T07:31:20.996Z</time></trkpt><trkpt lat="40.775660115681376" lon="8.981468883980742"><ele>568.5</ele><time>2026-05-01T07:31:21.996Z</time></trkpt><trkpt lat="40.77567995110107" lon="8.981356921814386"><ele>573.3333333333334</ele><time>2026-05-01T07:31:22.996Z</time></trkpt><trkpt lat="40.775697018399924" lon="8.981265367735437"><ele>578.1666666666667</ele><time>2026-05-01T07:31:23.996Z</time></trkpt><trkpt lat="40.77572352151267" lon="8.981167029741705"><ele>583.0</ele><time>2026-05-01T07:31:24.996Z</time></trkpt><trkpt lat="40.775769898894254" lon="8.981108802819215"><ele>583.0</ele><time>2026-05-01T07:31:25.996Z</time></trkpt><trkpt lat="40.77584814102148" lon="8.98105821311817"><ele>583.0</ele><time>2026-05-01T07:31:27.996Z</time></trkpt><trkpt lat="40.775904993656525" lon="8.981000118526337"><ele>583.0</ele><time>2026-05-01T07:31:28.996Z</time></trkpt><trkpt lat="40.77593264873136" lon="8.98091702028502"><ele>583.0</ele><time>2026-05-01T07:31:31.997Z</time></trkpt><trkpt lat="40.77583879474205" lon="8.980873514797391"><ele>583.0</ele><time>2026-05-01T07:31:34.997Z</time></trkpt><trkpt lat="40.77571512496858" lon="8.980861230787529"><ele>567.0</ele><time>2026-05-01T07:31:36.997Z</time></trkpt><trkpt lat="40.776575082586454" lon="8.981747438148437"><ele>567.0</ele><time>2026-05-01T07:31:37.997Z</time></trkpt><trkpt lat="40.77667102433711" lon="8.98166416363439"><ele>567.0</ele><time>2026-05-01T07:31:39.997Z</time></trkpt><trkpt lat="40.77676547360279" lon="8.981736600012209"><ele>567.0</ele><time>2026-05-01T07:31:41.997Z</time></trkpt><trkpt lat="40.77680885370729" lon="8.981851418490285"><ele>567.0</ele><time>2026-05-01T07:31:43.997Z</time></trkpt><trkpt lat="40.776829308473886" lon="8.981989343450893"><ele>567.0</ele><time>2026-05-01T07:31:45.997Z</time></trkpt><trkpt lat="40.776868281578466" lon="8.982077985601876"><ele>568.8000000000001</ele><time>2026-05-01T07:31:46.997Z</time></trkpt><trkpt lat="40.77695295180721" lon="8.982212296581768"><ele>570.6</ele><time>2026-05-01T07:31:48.997Z</time></trkpt><trkpt lat="40.777062184973836" lon="8.982290500587101"><ele>572.4000000000001</ele><time>2026-05-01T07:31:50.997Z</time></trkpt><trkpt lat="40.77717583522374" lon="8.982302719636534"><ele>574.2</ele><time>2026-05-01T07:31:52.997Z</time></trkpt><trkpt lat="40.77724572312188" lon="8.982294924112235"><ele>576.0</ele><time>2026-05-01T07:31:53.997Z</time></trkpt><trkpt lat="40.777308106315616" lon="8.982257666391188"><ele>576.0000000000001</ele><time>2026-05-01T07:31:54.997Z</time></trkpt><trkpt lat="40.77736143330126" lon="8.98221276290028"><ele>576.0</ele><time>2026-05-01T07:31:55.997Z</time></trkpt><trkpt lat="40.77742330241311" lon="8.982162781563073"><ele>576.0</ele><time>2026-05-01T07:31:56.997Z</time></trkpt><trkpt lat="40.77748734394405" lon="8.982125555076362"><ele>576.0</ele><time>2026-05-01T07:31:57.997Z</time></trkpt><trkpt lat="40.77755628188284" lon="8.982079629498813"><ele>576.0</ele><time>2026-05-01T07:31:58.997Z</time></trkpt><trkpt lat="40.7776250032609" lon="8.982059888171893"><ele>576.0000000000001</ele><time>2026-05-01T07:31:59.997Z</time></trkpt><trkpt lat="40.77768407417075" lon="8.981995681537631"><ele>576.0</ele><time>2026-05-01T07:32:00.997Z</time></trkpt><trkpt lat="40.77776605571384" lon="8.981958825685485"><ele>574.0</ele><time>2026-05-01T07:32:01.997Z</time></trkpt><trkpt lat="40.777836634906706" lon="8.981922267604272"><ele>572.0</ele><time>2026-05-01T07:32:02.997Z</time></trkpt><trkpt lat="40.777926610279984" lon="8.981890594532024"><ele>570.0</ele><time>2026-05-01T07:32:03.997Z</time></trkpt><trkpt lat="40.777983018234345" lon="8.981850538183323"><ele>568.0</ele><time>2026-05-01T07:32:04.997Z</time></trkpt><trkpt lat="40.778047869762894" lon="8.981800271793796"><ele>566.0</ele><time>2026-05-01T07:32:05.997Z</time></trkpt><trkpt lat="40.778117862458764" lon="8.981742031968343"><ele>564.0</ele><time>2026-05-01T07:32:06.997Z</time></trkpt><trkpt lat="40.7781790776719" lon="8.981687451294055"><ele>570.0</ele><time>2026-05-01T07:32:07.997Z</time></trkpt><trkpt lat="40.77825564333073" lon="8.981633186197751"><ele>576.0</ele><time>2026-05-01T07:32:08.997Z</time></trkpt><trkpt lat="40.7783221613136" lon="8.981583110827826"><ele>582.0</ele><time>2026-05-01T07:32:09.997Z</time></trkpt><trkpt lat="40.778389995239735" lon="8.981552069975045"><ele>588.0</ele><time>2026-05-01T07:32:10.997Z</time></trkpt><trkpt lat="40.77846823323563" lon="8.98154365133012"><ele>594.0</ele><time>2026-05-01T07:32:11.996Z</time></trkpt><trkpt lat="40.778572999392594" lon="8.981575390463329"><ele>600.0</ele><time>2026-05-01T07:32:13.996Z</time></trkpt><trkpt lat="40.778695966033034" lon="8.981647398982052"><ele>600.0</ele><time>2026-05-01T07:32:15.996Z</time></trkpt><trkpt lat="40.77876108907095" lon="8.981682723206045"><ele>600.0</ele><time>2026-05-01T07:32:16.996Z</time></trkpt><trkpt lat="40.77882650725832" lon="8.981698847125973"><ele>600.0</ele><time>2026-05-01T07:32:17.996Z</time></trkpt><trkpt lat="40.77891178108597" lon="8.981668166276465"><ele>600.0</ele><time>2026-05-01T07:32:19.996Z</time></trkpt><trkpt lat="40.77900366515084" lon="8.981585481255253"><ele>600.0</ele><time>2026-05-01T07:32:21.996Z</time></trkpt><trkpt lat="40.779079425967545" lon="8.981553297030631"><ele>600.0</ele><time>2026-05-01T07:32:22.996Z</time></trkpt><trkpt lat="40.77914919650399" lon="8.98153786805659"><ele>600.0</ele><time>2026-05-01T07:32:23.995Z</time></trkpt><trkpt lat="40.77922995940432" lon="8.981545362179066"><ele>600.0</ele><time>2026-05-01T07:32:24.996Z</time></trkpt><trkpt lat="40.779320257372675" lon="8.981554200616465"><ele>600.0</ele><time>2026-05-01T07:32:25.996Z</time></trkpt><trkpt lat="40.77938915902383" lon="8.981584524136606"><ele>600.0</ele><time>2026-05-01T07:32:26.996Z</time></trkpt><trkpt lat="40.77945711554908" lon="8.981624189351649"><ele>600.0</ele><time>2026-05-01T07:32:27.996Z</time></trkpt><trkpt lat="40.77953117744389" lon="8.98166509123997"><ele>600.0</ele><time>2026-05-01T07:32:28.996Z</time></trkpt><trkpt lat="40.77959333269583" lon="8.981716321609436"><ele>599.0</ele><time>2026-05-01T07:32:29.996Z</time></trkpt><trkpt lat="40.779651165729405" lon="8.981786355761079"><ele>598.0</ele><time>2026-05-01T07:32:30.996Z</time></trkpt><trkpt lat="40.77970937553691" lon="8.981859669212431"><ele>597.0</ele><time>2026-05-01T07:32:31.996Z</time></trkpt><trkpt lat="40.77977092525495" lon="8.981924717871918"><ele>596.0</ele><time>2026-05-01T07:32:32.996Z</time></trkpt><trkpt lat="40.779835430219535" lon="8.981997117504537"><ele>595.0</ele><time>2026-05-01T07:32:33.996Z</time></trkpt><trkpt lat="40.77989298929055" lon="8.982079389097754"><ele>594.0</ele><time>2026-05-01T07:32:34.996Z</time></trkpt><trkpt lat="40.77995581930935" lon="8.982148598845313"><ele>594.0</ele><time>2026-05-01T07:32:35.996Z</time></trkpt><trkpt lat="40.780013376420214" lon="8.982227457404578"><ele>594.0</ele><time>2026-05-01T07:32:36.996Z</time></trkpt><trkpt lat="40.78010704404962" lon="8.98228325728041"><ele>594.0</ele><time>2026-05-01T07:32:38.996Z</time></trkpt><trkpt lat="40.78017682382263" lon="8.982233179850864"><ele>594.0</ele><time>2026-05-01T07:32:40.996Z</time></trkpt><trkpt lat="40.78022436016325" lon="8.98210079892546"><ele>594.0</ele><time>2026-05-01T07:32:42.996Z</time></trkpt><trkpt lat="40.78027232371408" lon="8.982010829738279"><ele>595.6666666666666</ele><time>2026-05-01T07:32:43.996Z</time></trkpt><trkpt lat="40.78030326056219" lon="8.981933671068374"><ele>597.3333333333334</ele><time>2026-05-01T07:32:44.996Z</time></trkpt><trkpt lat="40.7803555172043" lon="8.981858179501701"><ele>599.0</ele><time>2026-05-01T07:32:45.996Z</time></trkpt><trkpt lat="40.780412269111544" lon="8.981782844489635"><ele>600.6666666666667</ele><time>2026-05-01T07:32:46.996Z</time></trkpt><trkpt lat="40.7804801841897" lon="8.981709037154094"><ele>602.3333333333334</ele><time>2026-05-01T07:32:47.996Z</time></trkpt><trkpt lat="40.78052992447151" lon="8.981655178284983"><ele>604.0</ele><time>2026-05-01T07:32:48.996Z</time></trkpt><trkpt lat="40.78056621809862" lon="8.98152001941911"><ele>604.0</ele><time>2026-05-01T07:32:50.996Z</time></trkpt><trkpt lat="40.780610710741456" lon="8.981406938678237"><ele>604.0</ele><time>2026-05-01T07:32:52.996Z</time></trkpt><trkpt lat="40.78067944724671" lon="8.981430957013007"><ele>604.0</ele><time>2026-05-01T07:32:54.996Z</time></trkpt><trkpt lat="40.78071218150639" lon="8.981534613252066"><ele>604.0</ele><time>2026-05-01T07:32:56.996Z</time></trkpt><trkpt lat="40.78073304878502" lon="8.981687530646026"><ele>604.0</ele><time>2026-05-01T07:32:58.996Z</time></trkpt><trkpt lat="40.78074579763677" lon="8.981808364830751"><ele>604.0</ele><time>2026-05-01T07:32:59.996Z</time></trkpt><trkpt lat="40.78077960014218" lon="8.981881565485597"><ele>604.0</ele><time>2026-05-01T07:33:00.996Z</time></trkpt><trkpt lat="40.780852541835536" lon="8.981946266851532"><ele>604.0</ele><time>2026-05-01T07:33:02.996Z</time></trkpt><trkpt lat="40.78094173058777" lon="8.981964121945063"><ele>604.0</ele><time>2026-05-01T07:33:04.996Z</time></trkpt><trkpt lat="40.781004606749065" lon="8.98198505101727"><ele>604.0</ele><time>2026-05-01T07:33:05.996Z</time></trkpt><trkpt lat="40.7810826463441" lon="8.9820143871779"><ele>604.0</ele><time>2026-05-01T07:33:06.996Z</time></trkpt><trkpt lat="40.78116136760064" lon="8.982038201305054"><ele>606.8333333333334</ele><time>2026-05-01T07:33:07.996Z</time></trkpt><trkpt lat="40.78124297234212" lon="8.982085676000064"><ele>609.6666666666667</ele><time>2026-05-01T07:33:08.996Z</time></trkpt><trkpt lat="40.78131519563756" lon="8.982147775022117"><ele>612.5</ele><time>2026-05-01T07:33:09.996Z</time></trkpt><trkpt lat="40.78137966147453" lon="8.982228246476591"><ele>615.3333333333334</ele><time>2026-05-01T07:33:10.996Z</time></trkpt><trkpt lat="40.78143776431607" lon="8.982306156622927"><ele>618.1666666666666</ele><time>2026-05-01T07:33:11.996Z</time></trkpt><trkpt lat="40.7814925350882" lon="8.982385012029006"><ele>621.0</ele><time>2026-05-01T07:33:12.996Z</time></trkpt><trkpt lat="40.78154730580859" lon="8.98246443990112"><ele>621.0</ele><time>2026-05-01T07:33:13.996Z</time></trkpt><trkpt lat="40.78159369081388" lon="8.982528143387418"><ele>621.0</ele><time>2026-05-01T07:33:14.996Z</time></trkpt><trkpt lat="40.78166925600124" lon="8.98258020137378"><ele>621.0</ele><time>2026-05-01T07:33:16.996Z</time></trkpt><trkpt lat="40.7817595602662" lon="8.982540916688555"><ele>621.0</ele><time>2026-05-01T07:33:18.996Z</time></trkpt><trkpt lat="40.78184578019049" lon="8.982417826152819"><ele>621.0</ele><time>2026-05-01T07:33:20.996Z</time></trkpt><trkpt lat="40.781874986714215" lon="8.982339725782195"><ele>621.0</ele><time>2026-05-01T07:33:21.996Z</time></trkpt><trkpt lat="40.781889933830875" lon="8.982253165355795"><ele>620.0</ele><time>2026-05-01T07:33:22.996Z</time></trkpt><trkpt lat="40.781897764450704" lon="8.982091166444748"><ele>619.0</ele><time>2026-05-01T07:33:24.996Z</time></trkpt><trkpt lat="40.78189790553921" lon="8.981945512433345"><ele>618.0</ele><time>2026-05-01T07:33:26.996Z</time></trkpt><trkpt lat="40.78190243975897" lon="8.981836269655428"><ele>617.0</ele><time>2026-05-01T07:33:27.996Z</time></trkpt><trkpt lat="40.78191012849694" lon="8.981744836703205"><ele>616.0</ele><time>2026-05-01T07:33:28.996Z</time></trkpt><trkpt lat="40.781928660583674" lon="8.981660243006665"><ele>619.0</ele><time>2026-05-01T07:33:29.996Z</time></trkpt><trkpt lat="40.78194827368179" lon="8.981573896876425"><ele>622.0</ele><time>2026-05-01T07:33:30.996Z</time></trkpt><trkpt lat="40.78195719321519" lon="8.981478315913158"><ele>625.0</ele><time>2026-05-01T07:33:31.996Z</time></trkpt><trkpt lat="40.781986605582716" lon="8.981392599095713"><ele>628.0</ele><time>2026-05-01T07:33:32.996Z</time></trkpt><trkpt lat="40.78202738942612" lon="8.981320932240058"><ele>631.0</ele><time>2026-05-01T07:33:33.996Z</time></trkpt><trkpt lat="40.78205987182792" lon="8.981236448136896"><ele>634.0</ele><time>2026-05-01T07:33:34.996Z</time></trkpt><trkpt lat="40.78208790008026" lon="8.981155010715588"><ele>637.0</ele><time>2026-05-01T07:33:35.996Z</time></trkpt><trkpt lat="40.782194343254915" lon="8.981057535253466"><ele>637.0</ele><time>2026-05-01T07:33:37.996Z</time></trkpt><trkpt lat="40.782316108522416" lon="8.980971258333163"><ele>637.0</ele><time>2026-05-01T07:33:39.996Z</time></trkpt><trkpt lat="40.78237983045313" lon="8.98092078153585"><ele>637.0</ele><time>2026-05-01T07:33:40.996Z</time></trkpt><trkpt lat="40.782427202692226" lon="8.980864405479819"><ele>637.0</ele><time>2026-05-01T07:33:41.996Z</time></trkpt><trkpt lat="40.782507120526446" lon="8.980840522028101"><ele>637.0</ele><time>2026-05-01T07:33:43.996Z</time></trkpt><trkpt lat="40.782569610017156" lon="8.980905691101437"><ele>637.0</ele><time>2026-05-01T07:33:45.996Z</time></trkpt><trkpt lat="40.7826012906733" lon="8.981031697738157"><ele>637.0</ele><time>2026-05-01T07:33:47.996Z</time></trkpt><trkpt lat="40.78267883082488" lon="8.981144381139288"><ele>637.0</ele><time>2026-05-01T07:33:49.996Z</time></trkpt><trkpt lat="40.782790169057236" lon="8.981220924220002"><ele>637.0</ele><time>2026-05-01T07:33:51.996Z</time></trkpt><trkpt lat="40.782861521475745" lon="8.981227328699513"><ele>637.0</ele><time>2026-05-01T07:33:52.996Z</time></trkpt><trkpt lat="40.78292495602849" lon="8.98122329070998"><ele>637.0</ele><time>2026-05-01T07:33:53.996Z</time></trkpt><trkpt lat="40.782990630635936" lon="8.98122406335808"><ele>637.0</ele><time>2026-05-01T07:33:54.996Z</time></trkpt><trkpt lat="40.78307067927702" lon="8.981243929692253"><ele>640.5</ele><time>2026-05-01T07:33:55.996Z</time></trkpt><trkpt lat="40.783139655895084" lon="8.981281109846003"><ele>644.0</ele><time>2026-05-01T07:33:56.996Z</time></trkpt><trkpt lat="40.78321027329662" lon="8.98130812063226"><ele>647.5</ele><time>2026-05-01T07:33:57.996Z</time></trkpt><trkpt lat="40.78328376209433" lon="8.981357369596562"><ele>651.0</ele><time>2026-05-01T07:33:58.996Z</time></trkpt><trkpt lat="40.78335800738686" lon="8.981409817452537"><ele>654.5</ele><time>2026-05-01T07:33:59.996Z</time></trkpt><trkpt lat="40.7834689301996" lon="8.981486500139148"><ele>658.0</ele><time>2026-05-01T07:34:01.997Z</time></trkpt><trkpt lat="40.78353803720162" lon="8.981518142166399"><ele>658.4</ele><time>2026-05-01T07:34:02.997Z</time></trkpt><trkpt lat="40.78365247961499" lon="8.98156159805189"><ele>658.8</ele><time>2026-05-01T07:34:04.997Z</time></trkpt><trkpt lat="40.78372168541676" lon="8.981511139930323"><ele>659.2</ele><time>2026-05-01T07:34:06.997Z</time></trkpt><trkpt lat="40.78382072608002" lon="8.981402178277063"><ele>659.6</ele><time>2026-05-01T07:34:08.997Z</time></trkpt><trkpt lat="40.78388120297609" lon="8.981336702402153"><ele>660.0</ele><time>2026-05-01T07:34:09.997Z</time></trkpt><trkpt lat="40.78397018697775" lon="8.981203917736002"><ele>660.0</ele><time>2026-05-01T07:34:11.997Z</time></trkpt><trkpt lat="40.784031524642096" lon="8.981065173803925"><ele>660.0</ele><time>2026-05-01T07:34:13.997Z</time></trkpt><trkpt lat="40.78408627422614" lon="8.980899951140925"><ele>660.0</ele><time>2026-05-01T07:34:15.997Z</time></trkpt><trkpt lat="40.78411319423776" lon="8.980811750721399"><ele>660.0</ele><time>2026-05-01T07:34:16.997Z</time></trkpt><trkpt lat="40.784165408944524" lon="8.980652970798763"><ele>662.0000000000001</ele><time>2026-05-01T07:34:18.995Z</time></trkpt><trkpt lat="40.784194796116275" lon="8.98056307160303"><ele>664.0</ele><time>2026-05-01T07:34:19.995Z</time></trkpt><trkpt lat="40.784223509601155" lon="8.980482502691943"><ele>666.0</ele><time>2026-05-01T07:34:20.995Z</time></trkpt><trkpt lat="40.784237023421994" lon="8.980385490909102"><ele>668.0</ele><time>2026-05-01T07:34:21.995Z</time></trkpt><trkpt lat="40.78424460709917" lon="8.980290121632429"><ele>670.0</ele><time>2026-05-01T07:34:22.995Z</time></trkpt><trkpt lat="40.7842634268077" lon="8.980200032965351"><ele>672.0000000000001</ele><time>2026-05-01T07:34:23.995Z</time></trkpt><trkpt lat="40.78427782796837" lon="8.98011381979139"><ele>674.0</ele><time>2026-05-01T07:34:24.994Z</time></trkpt><trkpt lat="40.784290017487336" lon="8.980020245288554"><ele>675.5</ele><time>2026-05-01T07:34:25.994Z</time></trkpt><trkpt lat="40.78430995343924" lon="8.979920933770167"><ele>677.0</ele><time>2026-05-01T07:34:26.995Z</time></trkpt><trkpt lat="40.78431191357043" lon="8.979821470508869"><ele>678.5</ele><time>2026-05-01T07:34:27.994Z</time></trkpt><trkpt lat="40.784315335529314" lon="8.979724418939666"><ele>680.0</ele><time>2026-05-01T07:34:28.994Z</time></trkpt><trkpt lat="40.78433067339924" lon="8.979555542455854"><ele>681.5</ele><time>2026-05-01T07:34:30.995Z</time></trkpt><trkpt lat="40.78431375926851" lon="8.979450932584935"><ele>683.0</ele><time>2026-05-01T07:34:31.995Z</time></trkpt><trkpt lat="40.78428666736036" lon="8.979364968474611"><ele>683.0</ele><time>2026-05-01T07:34:32.995Z</time></trkpt><trkpt lat="40.78421071145872" lon="8.979221435059591"><ele>683.0</ele><time>2026-05-01T07:34:34.995Z</time></trkpt><trkpt lat="40.78416174450087" lon="8.979154837258672"><ele>683.0</ele><time>2026-05-01T07:34:35.995Z</time></trkpt><trkpt lat="40.78414771646956" lon="8.979053309521523"><ele>683.0</ele><time>2026-05-01T07:34:38.995Z</time></trkpt><trkpt lat="40.78420710264303" lon="8.979018950216824"><ele>683.0</ele><time>2026-05-01T07:34:41.995Z</time></trkpt><trkpt lat="40.784274625298764" lon="8.979026026232823"><ele>683.0</ele><time>2026-05-01T07:34:42.995Z</time></trkpt><trkpt lat="40.784352064491095" lon="8.979049040133148"><ele>682.6666666666666</ele><time>2026-05-01T07:34:43.995Z</time></trkpt><trkpt lat="40.784438144581934" lon="8.979067385073547"><ele>682.3333333333333</ele><time>2026-05-01T07:34:44.995Z</time></trkpt><trkpt lat="40.78452106505335" lon="8.979085493996031"><ele>682.0</ele><time>2026-05-01T07:34:45.995Z</time></trkpt><trkpt lat="40.78459606729719" lon="8.979088959736556"><ele>681.6666666666666</ele><time>2026-05-01T07:34:46.995Z</time></trkpt><trkpt lat="40.78466914822632" lon="8.979105892592942"><ele>681.3333333333334</ele><time>2026-05-01T07:34:47.995Z</time></trkpt><trkpt lat="40.7847570364502" lon="8.979115801117432"><ele>681.0</ele><time>2026-05-01T07:34:48.995Z</time></trkpt><trkpt lat="40.78484209121049" lon="8.979125139289815"><ele>681.0</ele><time>2026-05-01T07:34:49.995Z</time></trkpt><trkpt lat="40.78492297454252" lon="8.97913800639024"><ele>681.0</ele><time>2026-05-01T07:34:50.995Z</time></trkpt><trkpt lat="40.78499367894973" lon="8.979154029285558"><ele>681.0</ele><time>2026-05-01T07:34:51.995Z</time></trkpt><trkpt lat="40.785063936741636" lon="8.979169089128593"><ele>681.0</ele><time>2026-05-01T07:34:52.995Z</time></trkpt><trkpt lat="40.785134277513414" lon="8.979172202340443"><ele>681.0</ele><time>2026-05-01T07:34:54.995Z</time></trkpt><trkpt lat="40.78515007410547" lon="8.979062203561988"><ele>681.0</ele><time>2026-05-01T07:34:57.995Z</time></trkpt><trkpt lat="40.78510018648212" lon="8.978988846474989"><ele>681.0</ele><time>2026-05-01T07:34:59.995Z</time></trkpt><trkpt lat="40.78500561069844" lon="8.978901465923343"><ele>681.0</ele><time>2026-05-01T07:35:01.995Z</time></trkpt><trkpt lat="40.78493001510029" lon="8.978841056365372"><ele>681.0</ele><time>2026-05-01T07:35:02.995Z</time></trkpt><trkpt lat="40.7848568386141" lon="8.978773225996372"><ele>681.0</ele><time>2026-05-01T07:35:03.995Z</time></trkpt><trkpt lat="40.78479824860901" lon="8.978713792692416"><ele>681.0</ele><time>2026-05-01T07:35:04.995Z</time></trkpt><trkpt lat="40.78474531621186" lon="8.978653276773544"><ele>681.0</ele><time>2026-05-01T07:35:05.995Z</time></trkpt><trkpt lat="40.784690561958804" lon="8.978595793080393"><ele>681.0</ele><time>2026-05-01T07:35:06.995Z</time></trkpt><trkpt lat="40.7846401397732" lon="8.97853912306197"><ele>681.0</ele><time>2026-05-01T07:35:07.995Z</time></trkpt><trkpt lat="40.78458299130149" lon="8.978468831473492"><ele>681.0</ele><time>2026-05-01T07:35:08.995Z</time></trkpt><trkpt lat="40.78452525741589" lon="8.978393535433606"><ele>681.0</ele><time>2026-05-01T07:35:09.995Z</time></trkpt><trkpt lat="40.78445747728783" lon="8.978315127981057"><ele>681.0</ele><time>2026-05-01T07:35:10.995Z</time></trkpt><trkpt lat="40.78439061256996" lon="8.978242348789014"><ele>681.0</ele><time>2026-05-01T07:35:11.995Z</time></trkpt><trkpt lat="40.784323158744265" lon="8.978160715044458"><ele>681.1999999999999</ele><time>2026-05-01T07:35:12.995Z</time></trkpt><trkpt lat="40.784264104439934" lon="8.978089837993862"><ele>681.4</ele><time>2026-05-01T07:35:13.995Z</time></trkpt><trkpt lat="40.78421053011004" lon="8.97802763086488"><ele>681.6</ele><time>2026-05-01T07:35:14.995Z</time></trkpt><trkpt lat="40.78410368552173" lon="8.977908850440459"><ele>681.8</ele><time>2026-05-01T07:35:16.995Z</time></trkpt><trkpt lat="40.78404500282908" lon="8.97783729351631"><ele>682.0</ele><time>2026-05-01T07:35:17.995Z</time></trkpt><trkpt lat="40.7839826505964" lon="8.97776173747727"><ele>682.0</ele><time>2026-05-01T07:35:18.995Z</time></trkpt><trkpt lat="40.78392676671931" lon="8.977686665151635"><ele>682.0</ele><time>2026-05-01T07:35:19.995Z</time></trkpt><trkpt lat="40.78386482592514" lon="8.977608590094883"><ele>682.0</ele><time>2026-05-01T07:35:20.995Z</time></trkpt><trkpt lat="40.783795929783416" lon="8.977535874261479"><ele>682.0</ele><time>2026-05-01T07:35:21.995Z</time></trkpt><trkpt lat="40.78373928937407" lon="8.977483508860962"><ele>682.0</ele><time>2026-05-01T07:35:22.995Z</time></trkpt><trkpt lat="40.78366828984146" lon="8.977422310071635"><ele>682.0</ele><time>2026-05-01T07:35:23.995Z</time></trkpt><trkpt lat="40.78360669639" lon="8.977376795303222"><ele>681.4000000000001</ele><time>2026-05-01T07:35:24.995Z</time></trkpt><trkpt lat="40.78354927329381" lon="8.977325938129505"><ele>680.8000000000001</ele><time>2026-05-01T07:35:25.995Z</time></trkpt><trkpt lat="40.78348498359968" lon="8.977270563265902"><ele>680.2</ele><time>2026-05-01T07:35:26.995Z</time></trkpt><trkpt lat="40.78340640720503" lon="8.977192901855943"><ele>679.6</ele><time>2026-05-01T07:35:27.995Z</time></trkpt><trkpt lat="40.78332719874771" lon="8.977096688402717"><ele>679.0</ele><time>2026-05-01T07:35:28.995Z</time></trkpt><trkpt lat="40.783256424336116" lon="8.976998081905286"><ele>678.5</ele><time>2026-05-01T07:35:29.995Z</time></trkpt><trkpt lat="40.78318113435691" lon="8.976904509183584"><ele>678.0</ele><time>2026-05-01T07:35:30.995Z</time></trkpt><trkpt lat="40.783104700465195" lon="8.976824598688184"><ele>677.5</ele><time>2026-05-01T07:35:31.995Z</time></trkpt><trkpt lat="40.78303911141903" lon="8.976756054541498"><ele>677.0</ele><time>2026-05-01T07:35:32.995Z</time></trkpt><trkpt lat="40.78297203201902" lon="8.976690782082635"><ele>676.5</ele><time>2026-05-01T07:35:33.995Z</time></trkpt><trkpt lat="40.78291016214088" lon="8.976636053611687"><ele>676.0</ele><time>2026-05-01T07:35:34.995Z</time></trkpt><trkpt lat="40.78284537339078" lon="8.97658250690723"><ele>676.0</ele><time>2026-05-01T07:35:35.995Z</time></trkpt><trkpt lat="40.782770238555074" lon="8.976515585617598"><ele>676.0</ele><time>2026-05-01T07:35:36.995Z</time></trkpt><trkpt lat="40.78268046232571" lon="8.976442726943427"><ele>676.0</ele><time>2026-05-01T07:35:37.995Z</time></trkpt><trkpt lat="40.782590047377354" lon="8.976364126305574"><ele>676.0</ele><time>2026-05-01T07:35:38.995Z</time></trkpt><trkpt lat="40.782508388373" lon="8.976295755018802"><ele>676.0</ele><time>2026-05-01T07:35:39.995Z</time></trkpt><trkpt lat="40.78241970048417" lon="8.976214681232804"><ele>675.4</ele><time>2026-05-01T07:35:40.995Z</time></trkpt><trkpt lat="40.78233180687811" lon="8.976130715351326"><ele>674.8</ele><time>2026-05-01T07:35:41.995Z</time></trkpt><trkpt lat="40.782259390700446" lon="8.976061377815848"><ele>674.1999999999999</ele><time>2026-05-01T07:35:42.995Z</time></trkpt><trkpt lat="40.78216568441442" lon="8.97597530362544"><ele>673.5999999999999</ele><time>2026-05-01T07:35:44.995Z</time></trkpt><trkpt lat="40.782104856810214" lon="8.975919905000413"><ele>673.0</ele><time>2026-05-01T07:35:45.995Z</time></trkpt><trkpt lat="40.781998119045106" lon="8.97584772959258"><ele>673.0</ele><time>2026-05-01T07:35:47.995Z</time></trkpt><trkpt lat="40.78189362393581" lon="8.975782795710476"><ele>673.0</ele><time>2026-05-01T07:35:49.995Z</time></trkpt><trkpt lat="40.78179096166324" lon="8.97573513628733"><ele>673.0</ele><time>2026-05-01T07:35:51.995Z</time></trkpt><trkpt lat="40.78166295070317" lon="8.975702006639564"><ele>673.0</ele><time>2026-05-01T07:35:53.995Z</time></trkpt><trkpt lat="40.781593112279594" lon="8.975686208162182"><ele>673.0</ele><time>2026-05-01T07:35:54.995Z</time></trkpt><trkpt lat="40.78152089090277" lon="8.975677150026165"><ele>674.8333333333334</ele><time>2026-05-01T07:35:55.995Z</time></trkpt><trkpt lat="40.78144629272623" lon="8.975665819502783"><ele>676.6666666666667</ele><time>2026-05-01T07:35:56.995Z</time></trkpt><trkpt lat="40.781367836241586" lon="8.97566041855868"><ele>678.5</ele><time>2026-05-01T07:35:57.995Z</time></trkpt><trkpt lat="40.78128954018107" lon="8.975654186762991"><ele>680.3333333333334</ele><time>2026-05-01T07:35:58.995Z</time></trkpt><trkpt lat="40.78121259371213" lon="8.9756492876182"><ele>682.1666666666666</ele><time>2026-05-01T07:35:59.995Z</time></trkpt><trkpt lat="40.78113076836246" lon="8.97563493879798"><ele>684.0</ele><time>2026-05-01T07:36:00.995Z</time></trkpt><trkpt lat="40.78103327209169" lon="8.975611370795455"><ele>683.6</ele><time>2026-05-01T07:36:01.995Z</time></trkpt><trkpt lat="40.78093119287774" lon="8.975599213176597"><ele>683.2</ele><time>2026-05-01T07:36:02.995Z</time></trkpt><trkpt lat="40.780823286729905" lon="8.975562959370597"><ele>682.8000000000001</ele><time>2026-05-01T07:36:03.995Z</time></trkpt><trkpt lat="40.78071378980819" lon="8.975514388905514"><ele>682.4000000000001</ele><time>2026-05-01T07:36:04.995Z</time></trkpt><trkpt lat="40.78063381079693" lon="8.975524915288267"><ele>682.0</ele><time>2026-05-01T07:36:05.995Z</time></trkpt><trkpt lat="40.7805431857469" lon="8.975487516811507"><ele>682.0</ele><time>2026-05-01T07:36:06.995Z</time></trkpt><trkpt lat="40.78046850409886" lon="8.975437284369086"><ele>682.0</ele><time>2026-05-01T07:36:07.995Z</time></trkpt><trkpt lat="40.78039791785624" lon="8.97538595052047"><ele>682.0</ele><time>2026-05-01T07:36:08.995Z</time></trkpt><trkpt lat="40.78032202593741" lon="8.975345934131791"><ele>682.0</ele><time>2026-05-01T07:36:09.995Z</time></trkpt><trkpt lat="40.78025420597907" lon="8.97513543997718"><ele>682.0</ele><time>2026-05-01T07:36:10.995Z</time></trkpt><trkpt lat="40.78016126202608" lon="8.975118034802367"><ele>682.0</ele><time>2026-05-01T07:36:11.995Z</time></trkpt><trkpt lat="40.78006683608349" lon="8.975100263736543"><ele>682.0</ele><time>2026-05-01T07:36:12.995Z</time></trkpt><trkpt lat="40.77996081660471" lon="8.975086440499526"><ele>682.0</ele><time>2026-05-01T07:36:13.995Z</time></trkpt><trkpt lat="40.77985957386503" lon="8.975083879388508"><ele>682.0</ele><time>2026-05-01T07:36:14.995Z</time></trkpt><trkpt lat="40.779764089090804" lon="8.975089986532609"><ele>682.0</ele><time>2026-05-01T07:36:15.995Z</time></trkpt><trkpt lat="40.77966796353677" lon="8.975123841780698"><ele>682.0</ele><time>2026-05-01T07:36:16.995Z</time></trkpt><trkpt lat="40.779586269907426" lon="8.975177220628142"><ele>682.0</ele><time>2026-05-01T07:36:17.995Z</time></trkpt><trkpt lat="40.77952120383846" lon="8.975163942963338"><ele>682.0</ele><time>2026-05-01T07:36:18.995Z</time></trkpt><trkpt lat="40.77945956197488" lon="8.975232995273347"><ele>682.0</ele><time>2026-05-01T07:36:19.995Z</time></trkpt><trkpt lat="40.77957090222794" lon="8.975384392390286"><ele>682.0</ele><time>2026-05-01T07:36:20.995Z</time></trkpt><trkpt lat="40.7794770034579" lon="8.975348983993902"><ele>682.0</ele><time>2026-05-01T07:36:21.995Z</time></trkpt><trkpt lat="40.779377321382654" lon="8.975231921128717"><ele>682.0</ele><time>2026-05-01T07:36:22.995Z</time></trkpt><trkpt lat="40.77931868655301" lon="8.975052485425527"><ele>682.0</ele><time>2026-05-01T07:36:23.995Z</time></trkpt><trkpt lat="40.77927784224005" lon="8.974950750803332"><ele>682.0</ele><time>2026-05-01T07:36:24.993Z</time></trkpt><trkpt lat="40.779238140205116" lon="8.974843841456421"><ele>681.3333333333334</ele><time>2026-05-01T07:36:25.993Z</time></trkpt><trkpt lat="40.77921049667767" lon="8.974738255714035"><ele>680.6666666666667</ele><time>2026-05-01T07:36:26.995Z</time></trkpt><trkpt lat="40.7791846643414" lon="8.974633179561069"><ele>680.0</ele><time>2026-05-01T07:36:27.994Z</time></trkpt><trkpt lat="40.7791786399217" lon="8.974521515627135"><ele>679.3333333333334</ele><time>2026-05-01T07:36:28.994Z</time></trkpt><trkpt lat="40.779163850927496" lon="8.974415863070156"><ele>678.6666666666666</ele><time>2026-05-01T07:36:29.994Z</time></trkpt><trkpt lat="40.77914471884559" lon="8.974292107178027"><ele>678.0</ele><time>2026-05-01T07:36:30.994Z</time></trkpt><trkpt lat="40.77911316131679" lon="8.97415235140858"><ele>677.0</ele><time>2026-05-01T07:36:31.994Z</time></trkpt><trkpt lat="40.7790768886378" lon="8.974017051160702"><ele>676.0</ele><time>2026-05-01T07:36:32.994Z</time></trkpt><trkpt lat="40.77904004106001" lon="8.97388963218097"><ele>675.0</ele><time>2026-05-01T07:36:33.995Z</time></trkpt><trkpt lat="40.779008676249376" lon="8.973779822212425"><ele>674.0</ele><time>2026-05-01T07:36:34.995Z</time></trkpt><trkpt lat="40.77897052286761" lon="8.973671397639023"><ele>673.0</ele><time>2026-05-01T07:36:35.995Z</time></trkpt><trkpt lat="40.778932464631374" lon="8.973570132762108"><ele>673.0</ele><time>2026-05-01T07:36:36.994Z</time></trkpt><trkpt lat="40.77889357317079" lon="8.973481761896277"><ele>673.0</ele><time>2026-05-01T07:36:37.994Z</time></trkpt><trkpt lat="40.77880709717681" lon="8.973384280553129"><ele>673.0</ele><time>2026-05-01T07:36:39.994Z</time></trkpt><trkpt lat="40.77874520636252" lon="8.973333995346572"><ele>673.0</ele><time>2026-05-01T07:36:40.994Z</time></trkpt><trkpt lat="40.77866424360971" lon="8.973297125510852"><ele>673.0</ele><time>2026-05-01T07:36:41.994Z</time></trkpt><trkpt lat="40.77857754239945" lon="8.973268421346082"><ele>673.0</ele><time>2026-05-01T07:36:42.994Z</time></trkpt><trkpt lat="40.77849531495263" lon="8.973262023102208"><ele>674.0</ele><time>2026-05-01T07:36:43.994Z</time></trkpt><trkpt lat="40.778424594020706" lon="8.973247224440554"><ele>675.0</ele><time>2026-05-01T07:36:44.994Z</time></trkpt><trkpt lat="40.778367982988144" lon="8.973204064700091"><ele>676.0</ele><time>2026-05-01T07:36:45.994Z</time></trkpt><trkpt lat="40.77832597912515" lon="8.973140521764638"><ele>677.0</ele><time>2026-05-01T07:36:46.994Z</time></trkpt><trkpt lat="40.77827318408516" lon="8.973043676657669"><ele>678.0</ele><time>2026-05-01T07:36:47.994Z</time></trkpt><trkpt lat="40.77821710279076" lon="8.972921160737782"><ele>679.0</ele><time>2026-05-01T07:36:48.994Z</time></trkpt><trkpt lat="40.778168225708065" lon="8.972820662638028"><ele>679.0</ele><time>2026-05-01T07:36:49.994Z</time></trkpt><trkpt lat="40.778132132396834" lon="8.972679093771157"><ele>679.0</ele><time>2026-05-01T07:36:50.994Z</time></trkpt><trkpt lat="40.778104136170626" lon="8.9725269221572"><ele>679.0</ele><time>2026-05-01T07:36:51.994Z</time></trkpt><trkpt lat="40.77807034473736" lon="8.972413282281362"><ele>679.0</ele><time>2026-05-01T07:36:52.994Z</time></trkpt><trkpt lat="40.7780291654876" lon="8.972293922765598"><ele>679.0</ele><time>2026-05-01T07:36:53.994Z</time></trkpt><trkpt lat="40.777989598301026" lon="8.972194573121651"><ele>678.0</ele><time>2026-05-01T07:36:54.994Z</time></trkpt><trkpt lat="40.77794276155199" lon="8.972073512874543"><ele>677.0</ele><time>2026-05-01T07:36:55.994Z</time></trkpt><trkpt lat="40.777901051789414" lon="8.971948220039828"><ele>676.0</ele><time>2026-05-01T07:36:56.994Z</time></trkpt><trkpt lat="40.77785925905809" lon="8.971827167385362"><ele>675.0</ele><time>2026-05-01T07:36:57.994Z</time></trkpt><trkpt lat="40.77781020177942" lon="8.971725690322893"><ele>674.0</ele><time>2026-05-01T07:36:58.994Z</time></trkpt><trkpt lat="40.777758590988206" lon="8.971629637109722"><ele>674.0</ele><time>2026-05-01T07:36:59.994Z</time></trkpt><trkpt lat="40.77770329515937" lon="8.971526577372233"><ele>674.0</ele><time>2026-05-01T07:37:00.994Z</time></trkpt><trkpt lat="40.77764165531785" lon="8.971422653413308"><ele>674.0</ele><time>2026-05-01T07:37:01.994Z</time></trkpt><trkpt lat="40.77758012734563" lon="8.971320840893648"><ele>674.0</ele><time>2026-05-01T07:37:02.994Z</time></trkpt><trkpt lat="40.77751579143713" lon="8.971236883562407"><ele>674.0</ele><time>2026-05-01T07:37:03.994Z</time></trkpt><trkpt lat="40.777443556777456" lon="8.971166313726755"><ele>674.0</ele><time>2026-05-01T07:37:04.994Z</time></trkpt><trkpt lat="40.77735829585922" lon="8.971095775576288"><ele>674.0</ele><time>2026-05-01T07:37:05.994Z</time></trkpt><trkpt lat="40.777267967371245" lon="8.97103155172718"><ele>674.0</ele><time>2026-05-01T07:37:06.994Z</time></trkpt><trkpt lat="40.77718084979535" lon="8.970960612486614"><ele>674.0</ele><time>2026-05-01T07:37:07.994Z</time></trkpt><trkpt lat="40.777099842866434" lon="8.970879605387305"><ele>674.0</ele><time>2026-05-01T07:37:08.994Z</time></trkpt><trkpt lat="40.77702997939838" lon="8.970783962237725"><ele>672.8000000000001</ele><time>2026-05-01T07:37:09.994Z</time></trkpt><trkpt lat="40.77696427278891" lon="8.970666159768037"><ele>671.6</ele><time>2026-05-01T07:37:10.994Z</time></trkpt><trkpt lat="40.77692010414001" lon="8.970544169200519"><ele>670.4</ele><time>2026-05-01T07:37:11.994Z</time></trkpt><trkpt lat="40.77688484143032" lon="8.970411299657847"><ele>669.2</ele><time>2026-05-01T07:37:12.994Z</time></trkpt><trkpt lat="40.776858388712206" lon="8.970292913956039"><ele>668.0</ele><time>2026-05-01T07:37:13.994Z</time></trkpt><trkpt lat="40.776828322971305" lon="8.970202234156728"><ele>668.0</ele><time>2026-05-01T07:37:14.994Z</time></trkpt><trkpt lat="40.77678346620877" lon="8.970100421068286"><ele>668.0</ele><time>2026-05-01T07:37:16.994Z</time></trkpt><trkpt lat="40.776724992912314" lon="8.970064071596067"><ele>668.0</ele><time>2026-05-01T07:37:52.994Z</time></trkpt><trkpt lat="40.776742699460776" lon="8.97014779424618"><ele>668.0</ele><time>2026-05-01T07:37:59.994Z</time></trkpt><trkpt lat="40.776832081911984" lon="8.970149458802304"><ele>668.0</ele><time>2026-05-01T07:38:01.994Z</time></trkpt><trkpt lat="40.77687021801751" lon="8.970052414120273"><ele>668.0</ele><time>2026-05-01T07:38:04.994Z</time></trkpt><trkpt lat="40.776850830018496" lon="8.96995008758159"><ele>667.0</ele><time>2026-05-01T07:38:06.994Z</time></trkpt><trkpt lat="40.77680962930111" lon="8.969843733062538"><ele>666.0</ele><time>2026-05-01T07:38:08.994Z</time></trkpt><trkpt lat="40.77675434630544" lon="8.969727911833488"><ele>665.0</ele><time>2026-05-01T07:38:10.994Z</time></trkpt><trkpt lat="40.77668140971046" lon="8.969617369752154"><ele>664.0</ele><time>2026-05-01T07:38:12.994Z</time></trkpt><trkpt lat="40.776636596133486" lon="8.96955177434961"><ele>663.0</ele><time>2026-05-01T07:38:13.994Z</time></trkpt><trkpt lat="40.77654359303098" lon="8.969441995380754"><ele>663.0</ele><time>2026-05-01T07:38:15.994Z</time></trkpt><trkpt lat="40.77649302158045" lon="8.969375022750906"><ele>663.0</ele><time>2026-05-01T07:38:16.994Z</time></trkpt><trkpt lat="40.77644229974572" lon="8.969325064830269"><ele>663.0</ele><time>2026-05-01T07:38:17.994Z</time></trkpt><trkpt lat="40.77633771993435" lon="8.969239344716831"><ele>663.0</ele><time>2026-05-01T07:38:19.994Z</time></trkpt><trkpt lat="40.77627556235392" lon="8.969193527590727"><ele>663.0</ele><time>2026-05-01T07:38:20.994Z</time></trkpt><trkpt lat="40.77621760184483" lon="8.969147781475275"><ele>663.0</ele><time>2026-05-01T07:38:21.994Z</time></trkpt><trkpt lat="40.77612026074164" lon="8.969055939900565"><ele>661.6666666666666</ele><time>2026-05-01T07:38:23.994Z</time></trkpt><trkpt lat="40.77607003026481" lon="8.96899546785393"><ele>660.3333333333334</ele><time>2026-05-01T07:38:24.994Z</time></trkpt><trkpt lat="40.77601237401895" lon="8.968929014685923"><ele>659.0</ele><time>2026-05-01T07:38:25.994Z</time></trkpt><trkpt lat="40.7759526105466" lon="8.968845092837716"><ele>657.6666666666667</ele><time>2026-05-01T07:38:26.994Z</time></trkpt><trkpt lat="40.77590019177951" lon="8.968760438860514"><ele>656.3333333333334</ele><time>2026-05-01T07:38:27.994Z</time></trkpt><trkpt lat="40.77584931094355" lon="8.968683989212"><ele>655.0</ele><time>2026-05-01T07:38:28.994Z</time></trkpt><trkpt lat="40.77579813651008" lon="8.968619980569372"><ele>655.0</ele><time>2026-05-01T07:38:29.993Z</time></trkpt><trkpt lat="40.775742855052194" lon="8.968560693199462"><ele>655.0</ele><time>2026-05-01T07:38:30.993Z</time></trkpt><trkpt lat="40.77566249989545" lon="8.968487948244338"><ele>655.0</ele><time>2026-05-01T07:38:32.993Z</time></trkpt><trkpt lat="40.77556762568966" lon="8.968407334519327"><ele>655.0</ele><time>2026-05-01T07:38:34.993Z</time></trkpt><trkpt lat="40.77548342303501" lon="8.968388250915472"><ele>655.0</ele><time>2026-05-01T07:38:36.993Z</time></trkpt><trkpt lat="40.77542822089842" lon="8.968436468593309"><ele>655.0</ele><time>2026-05-01T07:38:38.993Z</time></trkpt><trkpt lat="40.77538515531644" lon="8.968574948148248"><ele>655.0</ele><time>2026-05-01T07:38:41.993Z</time></trkpt><trkpt lat="40.77534631868177" lon="8.968640779853843"><ele>655.0</ele><time>2026-05-01T07:38:43.993Z</time></trkpt><trkpt lat="40.7752582576139" lon="8.968643082509246"><ele>655.0</ele><time>2026-05-01T07:38:45.993Z</time></trkpt><trkpt lat="40.77514589766691" lon="8.968585032218973"><ele>655.0</ele><time>2026-05-01T07:38:47.993Z</time></trkpt><trkpt lat="40.775015769492065" lon="8.968543474795473"><ele>655.0</ele><time>2026-05-01T07:38:49.993Z</time></trkpt><trkpt lat="40.77493560448315" lon="8.968517598419224"><ele>654.1666666666667</ele><time>2026-05-01T07:38:50.993Z</time></trkpt><trkpt lat="40.77484965244597" lon="8.968498224517097"><ele>653.3333333333334</ele><time>2026-05-01T07:38:51.993Z</time></trkpt><trkpt lat="40.774772376989276" lon="8.968478729819926"><ele>652.5</ele><time>2026-05-01T07:38:52.993Z</time></trkpt><trkpt lat="40.77467961771494" lon="8.968433806352905"><ele>651.6666666666666</ele><time>2026-05-01T07:38:53.993Z</time></trkpt><trkpt lat="40.77459747864995" lon="8.968391624458299"><ele>650.8333333333333</ele><time>2026-05-01T07:38:54.993Z</time></trkpt><trkpt lat="40.774519026934655" lon="8.968350027355154"><ele>650.0</ele><time>2026-05-01T07:38:55.993Z</time></trkpt><trkpt lat="40.77444035856068" lon="8.968313355512564"><ele>650.0</ele><time>2026-05-01T07:38:56.993Z</time></trkpt><trkpt lat="40.77436784301355" lon="8.968274480819161"><ele>650.0</ele><time>2026-05-01T07:38:57.993Z</time></trkpt><trkpt lat="40.77430411902936" lon="8.968238659918692"><ele>650.0</ele><time>2026-05-01T07:38:58.993Z</time></trkpt><trkpt lat="40.774230805603466" lon="8.968202882385077"><ele>650.0</ele><time>2026-05-01T07:38:59.993Z</time></trkpt><trkpt lat="40.77414122944712" lon="8.96816726138954"><ele>650.0</ele><time>2026-05-01T07:39:00.993Z</time></trkpt><trkpt lat="40.774052087303254" lon="8.968119750386261"><ele>650.0</ele><time>2026-05-01T07:39:01.993Z</time></trkpt><trkpt lat="40.773962428380926" lon="8.968066554612935"><ele>650.0</ele><time>2026-05-01T07:39:02.993Z</time></trkpt><trkpt lat="40.77387238090951" lon="8.968009800210405"><ele>650.0</ele><time>2026-05-01T07:39:03.993Z</time></trkpt><trkpt lat="40.77379570625528" lon="8.967969762268478"><ele>650.0</ele><time>2026-05-01T07:39:04.993Z</time></trkpt><trkpt lat="40.77370585529162" lon="8.967963935861924"><ele>650.0</ele><time>2026-05-01T07:39:07.993Z</time></trkpt><trkpt lat="40.77363165797533" lon="8.967966215082214"><ele>650.0</ele><time>2026-05-01T07:39:09.993Z</time></trkpt><trkpt lat="40.7735569354335" lon="8.967993086928116"><ele>650.0</ele><time>2026-05-01T07:39:12.993Z</time></trkpt><trkpt lat="40.77349510029242" lon="8.968010734284663"><ele>650.0</ele><time>2026-05-01T07:39:14.993Z</time></trkpt><trkpt lat="40.773419881022775" lon="8.968002304316622"><ele>650.0</ele><time>2026-05-01T07:39:16.993Z</time></trkpt><trkpt lat="40.77329765784289" lon="8.96797873419683"><ele>650.0</ele><time>2026-05-01T07:39:18.993Z</time></trkpt><trkpt lat="40.77318976125564" lon="8.967923864392263"><ele>650.0</ele><time>2026-05-01T07:39:20.993Z</time></trkpt><trkpt lat="40.773126525627035" lon="8.967894518202641"><ele>650.0</ele><time>2026-05-01T07:39:21.993Z</time></trkpt><trkpt lat="40.77301836339815" lon="8.967825319700149"><ele>650.0</ele><time>2026-05-01T07:39:23.993Z</time></trkpt><trkpt lat="40.7729315068181" lon="8.967729003575371"><ele>650.0</ele><time>2026-05-01T07:39:25.993Z</time></trkpt><trkpt lat="40.7728669228163" lon="8.967638195640236"><ele>650.0</ele><time>2026-05-01T07:39:27.993Z</time></trkpt><trkpt lat="40.772812338795966" lon="8.967568107085008"><ele>650.0</ele><time>2026-05-01T07:39:29.993Z</time></trkpt><trkpt lat="40.7727145753776" lon="8.967522763371665"><ele>650.0</ele><time>2026-05-01T07:39:31.993Z</time></trkpt><trkpt lat="40.772628224633564" lon="8.967540399448847"><ele>651.2</ele><time>2026-05-01T07:39:33.993Z</time></trkpt><trkpt lat="40.772532438201246" lon="8.967566994893554"><ele>652.4</ele><time>2026-05-01T07:39:35.993Z</time></trkpt><trkpt lat="40.77244957287268" lon="8.967599184766996"><ele>653.5999999999999</ele><time>2026-05-01T07:39:37.993Z</time></trkpt><trkpt lat="40.77234424223241" lon="8.967590852681157"><ele>654.8</ele><time>2026-05-01T07:39:39.993Z</time></trkpt><trkpt lat="40.77224145364129" lon="8.967567871112914"><ele>656.0</ele><time>2026-05-01T07:39:41.993Z</time></trkpt><trkpt lat="40.772152739942214" lon="8.967546027485803"><ele>653.0</ele><time>2026-05-01T07:39:43.993Z</time></trkpt><trkpt lat="40.772065428537246" lon="8.967507851362544"><ele>650.0</ele><time>2026-05-01T07:39:45.993Z</time></trkpt><trkpt lat="40.77207151698886" lon="8.96739942508859"><ele>647.0</ele><time>2026-05-01T07:39:49.993Z</time></trkpt><trkpt lat="40.77211156224052" lon="8.967254948906069"><ele>644.0</ele><time>2026-05-01T07:39:51.993Z</time></trkpt><trkpt lat="40.77213229049938" lon="8.967122307175156"><ele>641.0</ele><time>2026-05-01T07:39:53.993Z</time></trkpt><trkpt lat="40.77214990637024" lon="8.966995435373446"><ele>641.0</ele><time>2026-05-01T07:39:55.993Z</time></trkpt><trkpt lat="40.7721295992614" lon="8.966909365374264"><ele>641.0</ele><time>2026-05-01T07:39:57.993Z</time></trkpt><trkpt lat="40.77207054525076" lon="8.966819311170022"><ele>641.0</ele><time>2026-05-01T07:39:59.993Z</time></trkpt><trkpt lat="40.77202109508542" lon="8.966751734722289"><ele>641.0</ele><time>2026-05-01T07:40:00.993Z</time></trkpt><trkpt lat="40.77197239286203" lon="8.966684732304286"><ele>641.0</ele><time>2026-05-01T07:40:01.994Z</time></trkpt><trkpt lat="40.77192538068298" lon="8.966625026402061"><ele>641.0</ele><time>2026-05-01T07:40:02.994Z</time></trkpt><trkpt lat="40.77187470259058" lon="8.966559691275524"><ele>641.0</ele><time>2026-05-01T07:40:03.994Z</time></trkpt><trkpt lat="40.771791055729075" lon="8.966447604961061"><ele>641.8</ele><time>2026-05-01T07:40:05.994Z</time></trkpt><trkpt lat="40.771715029412725" lon="8.966356870598464"><ele>642.5999999999999</ele><time>2026-05-01T07:40:07.994Z</time></trkpt><trkpt lat="40.7716340570683" lon="8.96627545205332"><ele>643.4</ele><time>2026-05-01T07:40:09.994Z</time></trkpt><trkpt lat="40.771544304964166" lon="8.966189763194734"><ele>644.2</ele><time>2026-05-01T07:40:11.994Z</time></trkpt><trkpt lat="40.771475147840384" lon="8.966143300539253"><ele>645.0</ele><time>2026-05-01T07:40:13.994Z</time></trkpt><trkpt lat="40.77139635645534" lon="8.96609580682074"><ele>645.0</ele><time>2026-05-01T07:40:16.994Z</time></trkpt><trkpt lat="40.77131919080328" lon="8.96604915363141"><ele>645.0</ele><time>2026-05-01T07:40:18.994Z</time></trkpt><trkpt lat="40.77125890189118" lon="8.966025069266227"><ele>645.0</ele><time>2026-05-01T07:40:20.994Z</time></trkpt><trkpt lat="40.7711932077673" lon="8.965977808769017"><ele>645.0</ele><time>2026-05-01T07:40:23.994Z</time></trkpt><trkpt lat="40.771134215136904" lon="8.965927635310264"><ele>645.0</ele><time>2026-05-01T07:40:27.994Z</time></trkpt><trkpt lat="40.77109375672128" lon="8.965860597994892"><ele>645.0</ele><time>2026-05-01T07:40:31.994Z</time></trkpt><trkpt lat="40.77104965400127" lon="8.965782660586465"><ele>645.0</ele><time>2026-05-01T07:40:34.994Z</time></trkpt><trkpt lat="40.77100728126079" lon="8.965696625757174"><ele>642.2857142857143</ele><time>2026-05-01T07:40:37.992Z</time></trkpt><trkpt lat="40.77096179270014" lon="8.965622357985142"><ele>639.5714285714286</ele><time>2026-05-01T07:40:40.993Z</time></trkpt><trkpt lat="40.770908291853566" lon="8.965553018385213"><ele>636.8571428571429</ele><time>2026-05-01T07:40:43.993Z</time></trkpt><trkpt lat="40.770830090487095" lon="8.965539942965647"><ele>634.1428571428571</ele><time>2026-05-01T07:40:47.993Z</time></trkpt><trkpt lat="40.77078464795804" lon="8.96561695963053"><ele>631.4285714285714</ele><time>2026-05-01T07:40:51.993Z</time></trkpt><trkpt lat="40.77070926798488" lon="8.965642571915469"><ele>628.7142857142857</ele><time>2026-05-01T07:40:55.993Z</time></trkpt><trkpt lat="40.77065165730057" lon="8.965587111079778"><ele>626.0</ele><time>2026-05-01T07:40:58.993Z</time></trkpt><trkpt lat="40.77056586351583" lon="8.965506704264053"><ele>626.0</ele><time>2026-05-01T07:41:00.993Z</time></trkpt><trkpt lat="40.77050211217788" lon="8.965453829879667"><ele>626.0</ele><time>2026-05-01T07:41:01.993Z</time></trkpt><trkpt lat="40.77043280171048" lon="8.965400581877132"><ele>626.0</ele><time>2026-05-01T07:41:02.993Z</time></trkpt><trkpt lat="40.77033902596921" lon="8.965322685767761"><ele>626.0</ele><time>2026-05-01T07:41:04.993Z</time></trkpt><trkpt lat="40.770263651397535" lon="8.965252091484984"><ele>626.0</ele><time>2026-05-01T07:41:06.993Z</time></trkpt><trkpt lat="40.77019933990998" lon="8.965187141955521"><ele>626.0</ele><time>2026-05-01T07:41:08.993Z</time></trkpt><trkpt lat="40.7701298355182" lon="8.965138906030228"><ele>626.5</ele><time>2026-05-01T07:41:10.993Z</time></trkpt><trkpt lat="40.77007360636945" lon="8.965053771325294"><ele>627.0</ele><time>2026-05-01T07:41:12.993Z</time></trkpt><trkpt lat="40.77000541258231" lon="8.964957121497047"><ele>627.5</ele><time>2026-05-01T07:41:14.993Z</time></trkpt><trkpt lat="40.76994201104552" lon="8.964939694298138"><ele>628.0</ele><time>2026-05-01T07:41:16.993Z</time></trkpt><trkpt lat="40.76985909372557" lon="8.964993662542096"><ele>628.5</ele><time>2026-05-01T07:42:31.993Z</time></trkpt><trkpt lat="40.769787403328245" lon="8.965075370913675"><ele>629.0</ele><time>2026-05-01T07:42:33.993Z</time></trkpt><trkpt lat="40.76970782790424" lon="8.965224090816196"><ele>629.0</ele><time>2026-05-01T07:42:35.993Z</time></trkpt><trkpt lat="40.76966747226269" lon="8.965311808218193"><ele>629.0</ele><time>2026-05-01T07:42:36.993Z</time></trkpt><trkpt lat="40.76961750054365" lon="8.965405620715407"><ele>629.0</ele><time>2026-05-01T07:42:37.993Z</time></trkpt><trkpt lat="40.769565825969984" lon="8.965509537078463"><ele>629.0</ele><time>2026-05-01T07:42:38.993Z</time></trkpt><trkpt lat="40.76951332418786" lon="8.965629659906972"><ele>629.0</ele><time>2026-05-01T07:42:39.993Z</time></trkpt><trkpt lat="40.769453065399986" lon="8.965753225322466"><ele>629.8</ele><time>2026-05-01T07:42:40.993Z</time></trkpt><trkpt lat="40.76939328898593" lon="8.965868566002435"><ele>630.5999999999999</ele><time>2026-05-01T07:42:41.993Z</time></trkpt><trkpt lat="40.76933802216714" lon="8.965983255559374"><ele>631.4</ele><time>2026-05-01T07:42:42.992Z</time></trkpt><trkpt lat="40.769284026086964" lon="8.966092114019991"><ele>632.1999999999999</ele><time>2026-05-01T07:42:43.992Z</time></trkpt><trkpt lat="40.76922487868002" lon="8.9661949374449"><ele>633.0</ele><time>2026-05-01T07:42:44.992Z</time></trkpt><trkpt lat="40.76917041087712" lon="8.96629360998865"><ele>634.8333333333334</ele><time>2026-05-01T07:42:45.992Z</time></trkpt><trkpt lat="40.76912579052384" lon="8.966390114035034"><ele>636.6666666666666</ele><time>2026-05-01T07:42:46.992Z</time></trkpt><trkpt lat="40.76908678784077" lon="8.966471060406523"><ele>638.5</ele><time>2026-05-01T07:42:47.993Z</time></trkpt><trkpt lat="40.769022863296875" lon="8.966423675990935"><ele>640.3333333333333</ele><time>2026-05-01T07:42:54.992Z</time></trkpt><trkpt lat="40.76902503331008" lon="8.96632318081371"><ele>642.1666666666666</ele><time>2026-05-01T07:42:56.992Z</time></trkpt><trkpt lat="40.76901010814618" lon="8.966236630431949"><ele>644.0</ele><time>2026-05-01T07:42:57.992Z</time></trkpt><trkpt lat="40.768970625826" lon="8.966045036031394"><ele>644.0</ele><time>2026-05-01T07:42:59.992Z</time></trkpt><trkpt lat="40.768944822585766" lon="8.965944137315677"><ele>644.0</ele><time>2026-05-01T07:43:00.992Z</time></trkpt><trkpt lat="40.768920491592674" lon="8.965851688082553"><ele>644.0</ele><time>2026-05-01T07:43:01.992Z</time></trkpt><trkpt lat="40.768906323256246" lon="8.965758057354908"><ele>644.0</ele><time>2026-05-01T07:43:02.992Z</time></trkpt><trkpt lat="40.76889258873006" lon="8.96566701917699"><ele>644.0</ele><time>2026-05-01T07:43:03.992Z</time></trkpt><trkpt lat="40.768892047267286" lon="8.965560117222614"><ele>644.0</ele><time>2026-05-01T07:43:04.992Z</time></trkpt><trkpt lat="40.76890604985327" lon="8.965436394871757"><ele>643.6666666666666</ele><time>2026-05-01T07:43:05.992Z</time></trkpt><trkpt lat="40.76892175020698" lon="8.96530655555604"><ele>643.3333333333333</ele><time>2026-05-01T07:43:06.992Z</time></trkpt><trkpt lat="40.768948225962085" lon="8.965186842520048"><ele>643.0</ele><time>2026-05-01T07:43:07.992Z</time></trkpt><trkpt lat="40.7689804056672" lon="8.965084202269088"><ele>642.6666666666666</ele><time>2026-05-01T07:43:08.992Z</time></trkpt><trkpt lat="40.76900229515252" lon="8.964991838302318"><ele>642.3333333333334</ele><time>2026-05-01T07:43:09.993Z</time></trkpt><trkpt lat="40.76902028258992" lon="8.964893279469202"><ele>642.0</ele><time>2026-05-01T07:43:10.993Z</time></trkpt><trkpt lat="40.769031742341014" lon="8.964798264321852"><ele>641.5</ele><time>2026-05-01T07:43:11.993Z</time></trkpt><trkpt lat="40.769042786551736" lon="8.964692066132782"><ele>641.0</ele><time>2026-05-01T07:43:12.993Z</time></trkpt><trkpt lat="40.769040985316536" lon="8.964595410612723"><ele>640.5</ele><time>2026-05-01T07:43:13.993Z</time></trkpt><trkpt lat="40.769021951891276" lon="8.964492177409506"><ele>640.0</ele><time>2026-05-01T07:43:14.993Z</time></trkpt><trkpt lat="40.76898074356954" lon="8.964397716952382"><ele>639.5</ele><time>2026-05-01T07:43:15.993Z</time></trkpt><trkpt lat="40.76892891419101" lon="8.964298843131292"><ele>639.0</ele><time>2026-05-01T07:43:16.993Z</time></trkpt><trkpt lat="40.76888052978657" lon="8.964177380249858"><ele>638.4</ele><time>2026-05-01T07:43:17.993Z</time></trkpt><trkpt lat="40.768841940281824" lon="8.964060041135417"><ele>637.8</ele><time>2026-05-01T07:43:18.993Z</time></trkpt><trkpt lat="40.768825715955856" lon="8.96394102568341"><ele>637.2</ele><time>2026-05-01T07:43:19.993Z</time></trkpt><trkpt lat="40.768824938867255" lon="8.96382987524034"><ele>636.6</ele><time>2026-05-01T07:43:20.993Z</time></trkpt><trkpt lat="40.768808927641764" lon="8.963718924691252"><ele>636.0</ele><time>2026-05-01T07:43:21.993Z</time></trkpt><trkpt lat="40.76873547753584" lon="8.963613099607196"><ele>636.0</ele><time>2026-05-01T07:43:23.993Z</time></trkpt><trkpt lat="40.768648401269964" lon="8.963527569523018"><ele>636.0</ele><time>2026-05-01T07:43:25.993Z</time></trkpt><trkpt lat="40.768574593714234" lon="8.963479375606687"><ele>636.0</ele><time>2026-05-01T07:43:26.993Z</time></trkpt><trkpt lat="40.76850704960181" lon="8.963436687710159"><ele>636.0</ele><time>2026-05-01T07:43:27.993Z</time></trkpt><trkpt lat="40.76844608714089" lon="8.963400697796365"><ele>636.0</ele><time>2026-05-01T07:43:28.993Z</time></trkpt><trkpt lat="40.768375235538024" lon="8.963334981331846"><ele>636.0</ele><time>2026-05-01T07:43:30.993Z</time></trkpt><trkpt lat="40.76830805385949" lon="8.96322877984423"><ele>636.6666666666666</ele><time>2026-05-01T07:43:32.993Z</time></trkpt><trkpt lat="40.76825931069399" lon="8.963154522420655"><ele>637.3333333333334</ele><time>2026-05-01T07:43:33.993Z</time></trkpt><trkpt lat="40.76820633053916" lon="8.963102543910404"><ele>638.0</ele><time>2026-05-01T07:43:34.993Z</time></trkpt><trkpt lat="40.768110577091065" lon="8.963002026359264"><ele>638.6666666666667</ele><time>2026-05-01T07:43:36.993Z</time></trkpt><trkpt lat="40.768049106819205" lon="8.962958513676808"><ele>639.3333333333334</ele><time>2026-05-01T07:43:37.993Z</time></trkpt><trkpt lat="40.7679468110225" lon="8.962884570349074"><ele>640.0</ele><time>2026-05-01T07:43:39.993Z</time></trkpt><trkpt lat="40.767878336863504" lon="8.962838583798142"><ele>640.0</ele><time>2026-05-01T07:43:40.993Z</time></trkpt><trkpt lat="40.76781307368302" lon="8.9628077052361"><ele>640.0</ele><time>2026-05-01T07:43:41.993Z</time></trkpt><trkpt lat="40.76773386403654" lon="8.962753956313819"><ele>640.0</ele><time>2026-05-01T07:43:42.993Z</time></trkpt><trkpt lat="40.76766543421645" lon="8.962713220016289"><ele>640.0</ele><time>2026-05-01T07:43:43.993Z</time></trkpt><trkpt lat="40.767611969461456" lon="8.962648449010864"><ele>640.0</ele><time>2026-05-01T07:43:44.993Z</time></trkpt><trkpt lat="40.76756485274317" lon="8.962574079194804"><ele>640.0</ele><time>2026-05-01T07:43:45.993Z</time></trkpt><trkpt lat="40.76752337107515" lon="8.962494683076821"><ele>640.2857142857142</ele><time>2026-05-01T07:43:46.993Z</time></trkpt><trkpt lat="40.76748827157894" lon="8.962406237697332"><ele>640.5714285714286</ele><time>2026-05-01T07:43:47.993Z</time></trkpt><trkpt lat="40.76746477686048" lon="8.962326229533687"><ele>640.8571428571429</ele><time>2026-05-01T07:43:48.993Z</time></trkpt><trkpt lat="40.767445142868795" lon="8.962230036452917"><ele>641.1428571428571</ele><time>2026-05-01T07:43:49.993Z</time></trkpt><trkpt lat="40.76741544456838" lon="8.962141266565622"><ele>641.4285714285714</ele><time>2026-05-01T07:43:50.993Z</time></trkpt><trkpt lat="40.767393289688485" lon="8.962047955950151"><ele>641.7142857142857</ele><time>2026-05-01T07:43:51.993Z</time></trkpt><trkpt lat="40.76735661972796" lon="8.96197082793141"><ele>642.0</ele><time>2026-05-01T07:43:52.993Z</time></trkpt><trkpt lat="40.76732354149039" lon="8.961890476885355"><ele>642.0</ele><time>2026-05-01T07:43:53.993Z</time></trkpt><trkpt lat="40.767274119456815" lon="8.961794630997966"><ele>642.0</ele><time>2026-05-01T07:43:54.993Z</time></trkpt><trkpt lat="40.76722456762642" lon="8.961693095215226"><ele>642.0</ele><time>2026-05-01T07:43:55.993Z</time></trkpt><trkpt lat="40.76717759533206" lon="8.961591147214369"><ele>642.0</ele><time>2026-05-01T07:43:56.993Z</time></trkpt><trkpt lat="40.76714132393792" lon="8.961476427869965"><ele>642.0</ele><time>2026-05-01T07:43:57.993Z</time></trkpt><trkpt lat="40.76711088652231" lon="8.961368593435457"><ele>640.4</ele><time>2026-05-01T07:43:58.993Z</time></trkpt><trkpt lat="40.76705560540417" lon="8.961228530503222"><ele>638.8000000000001</ele><time>2026-05-01T07:43:59.993Z</time></trkpt><trkpt lat="40.76704067501629" lon="8.96110588255114"><ele>637.2</ele><time>2026-05-01T07:44:00.993Z</time></trkpt><trkpt lat="40.76702666270163" lon="8.960975339551519"><ele>635.6</ele><time>2026-05-01T07:44:01.993Z</time></trkpt><trkpt lat="40.76701037545274" lon="8.960860736193114"><ele>634.0</ele><time>2026-05-01T07:44:02.993Z</time></trkpt><trkpt lat="40.76698246300066" lon="8.960750849462244"><ele>635.1666666666667</ele><time>2026-05-01T07:44:03.993Z</time></trkpt><trkpt lat="40.766954647633234" lon="8.960649828298301"><ele>636.3333333333334</ele><time>2026-05-01T07:44:04.993Z</time></trkpt><trkpt lat="40.76690970973663" lon="8.96055111544632"><ele>637.5</ele><time>2026-05-01T07:44:05.993Z</time></trkpt><trkpt lat="40.76686714569465" lon="8.960461063010964"><ele>638.6666666666666</ele><time>2026-05-01T07:44:06.993Z</time></trkpt><trkpt lat="40.76681261252484" lon="8.960384994476179"><ele>639.8333333333333</ele><time>2026-05-01T07:44:07.993Z</time></trkpt><trkpt lat="40.76674313224143" lon="8.960305565212897"><ele>641.0</ele><time>2026-05-01T07:44:08.993Z</time></trkpt><trkpt lat="40.76667566787571" lon="8.960241347124748"><ele>641.0</ele><time>2026-05-01T07:44:09.993Z</time></trkpt><trkpt lat="40.766608126141215" lon="8.960164430914451"><ele>641.0</ele><time>2026-05-01T07:44:10.993Z</time></trkpt><trkpt lat="40.766541520476885" lon="8.960091915968366"><ele>641.0</ele><time>2026-05-01T07:44:11.993Z</time></trkpt><trkpt lat="40.76646796255405" lon="8.960017116089283"><ele>641.0</ele><time>2026-05-01T07:44:12.993Z</time></trkpt><trkpt lat="40.76640492210269" lon="8.959945772954878"><ele>641.0</ele><time>2026-05-01T07:44:13.993Z</time></trkpt><trkpt lat="40.76636133475169" lon="8.9598551650818"><ele>641.0</ele><time>2026-05-01T07:44:14.993Z</time></trkpt><trkpt lat="40.76633846532387" lon="8.95975408354727"><ele>639.4</ele><time>2026-05-01T07:44:15.993Z</time></trkpt><trkpt lat="40.766328596002346" lon="8.959660398242363"><ele>637.8</ele><time>2026-05-01T07:44:16.993Z</time></trkpt><trkpt lat="40.76632486564426" lon="8.959549254436736"><ele>636.1999999999999</ele><time>2026-05-01T07:44:17.993Z</time></trkpt><trkpt lat="40.766276910225486" lon="8.959389200522024"><ele>634.5999999999999</ele><time>2026-05-01T07:44:19.993Z</time></trkpt><trkpt lat="40.76623147361418" lon="8.959284726649432"><ele>633.0</ele><time>2026-05-01T07:44:20.993Z</time></trkpt><trkpt lat="40.76617599965709" lon="8.959201969303834"><ele>632.0</ele><time>2026-05-01T07:44:21.993Z</time></trkpt><trkpt lat="40.76611821429732" lon="8.95911299476258"><ele>631.0</ele><time>2026-05-01T07:44:22.993Z</time></trkpt><trkpt lat="40.766065868514325" lon="8.95905899347829"><ele>630.0</ele><time>2026-05-01T07:44:23.993Z</time></trkpt><trkpt lat="40.76602304545577" lon="8.958934653263272"><ele>629.0</ele><time>2026-05-01T07:44:25.993Z</time></trkpt><trkpt lat="40.765979827568096" lon="8.958828233897329"><ele>628.0</ele><time>2026-05-01T07:44:27.993Z</time></trkpt><trkpt lat="40.765931258738334" lon="8.95871256083273"><ele>630.0</ele><time>2026-05-01T07:44:28.993Z</time></trkpt><trkpt lat="40.765869353119726" lon="8.958652803694559"><ele>632.0</ele><time>2026-05-01T07:44:29.993Z</time></trkpt><trkpt lat="40.76580067100575" lon="8.95860300698061"><ele>634.0</ele><time>2026-05-01T07:44:30.993Z</time></trkpt><trkpt lat="40.765731502909" lon="8.958578710101841"><ele>636.0</ele><time>2026-05-01T07:44:31.993Z</time></trkpt><trkpt lat="40.76563064494311" lon="8.958568570909621"><ele>638.0</ele><time>2026-05-01T07:44:33.993Z</time></trkpt><trkpt lat="40.76556515116872" lon="8.958593191391708"><ele>640.0</ele><time>2026-05-01T07:44:34.993Z</time></trkpt><trkpt lat="40.765497089215046" lon="8.958632533324687"><ele>640.0</ele><time>2026-05-01T07:44:35.993Z</time></trkpt><trkpt lat="40.76541085410529" lon="8.95873376800519"><ele>640.0</ele><time>2026-05-01T07:44:37.993Z</time></trkpt><trkpt lat="40.76537479378546" lon="8.958810728391628"><ele>640.0</ele><time>2026-05-01T07:44:38.993Z</time></trkpt><trkpt lat="40.76532688316793" lon="8.958907151033614"><ele>640.0</ele><time>2026-05-01T07:44:39.993Z</time></trkpt><trkpt lat="40.76529274102726" lon="8.959007457591195"><ele>640.0</ele><time>2026-05-01T07:44:40.993Z</time></trkpt><trkpt lat="40.765259722576815" lon="8.95908316857632"><ele>640.0</ele><time>2026-05-01T07:44:41.993Z</time></trkpt><trkpt lat="40.76518920291829" lon="8.959119774702797"><ele>639.8333333333334</ele><time>2026-05-01T07:44:44.993Z</time></trkpt><trkpt lat="40.76516764558247" lon="8.959018039132049"><ele>639.6666666666667</ele><time>2026-05-01T07:44:48.993Z</time></trkpt><trkpt lat="40.76516807473253" lon="8.95886795754424"><ele>639.5</ele><time>2026-05-01T07:44:50.993Z</time></trkpt><trkpt lat="40.76515405521047" lon="8.958761620021258"><ele>639.3333333333334</ele><time>2026-05-01T07:44:51.992Z</time></trkpt><trkpt lat="40.765143463426774" lon="8.958647562982065"><ele>639.1666666666666</ele><time>2026-05-01T07:44:52.992Z</time></trkpt><trkpt lat="40.765127126423714" lon="8.958537148087679"><ele>639.0</ele><time>2026-05-01T07:44:53.992Z</time></trkpt><trkpt lat="40.76511051013501" lon="8.958423210409848"><ele>638.6666666666666</ele><time>2026-05-01T07:44:54.993Z</time></trkpt><trkpt lat="40.76509516543391" lon="8.958311012054505"><ele>638.3333333333334</ele><time>2026-05-01T07:44:55.993Z</time></trkpt><trkpt lat="40.76507938577896" lon="8.958190791040298"><ele>638.0</ele><time>2026-05-01T07:44:56.992Z</time></trkpt><trkpt lat="40.76506218731258" lon="8.95808050741993"><ele>637.6666666666667</ele><time>2026-05-01T07:44:57.993Z</time></trkpt><trkpt lat="40.76504814478457" lon="8.9579690650246"><ele>637.3333333333334</ele><time>2026-05-01T07:44:58.993Z</time></trkpt><trkpt lat="40.76503229056963" lon="8.957850437421918"><ele>637.0</ele><time>2026-05-01T07:44:59.993Z</time></trkpt><trkpt lat="40.76501103844443" lon="8.95772585902556"><ele>637.0</ele><time>2026-05-01T07:45:00.992Z</time></trkpt><trkpt lat="40.76499228797216" lon="8.957590975595567"><ele>637.0</ele><time>2026-05-01T07:45:01.992Z</time></trkpt><trkpt lat="40.76498187619096" lon="8.957439987929687"><ele>637.0</ele><time>2026-05-01T07:45:02.992Z</time></trkpt><trkpt lat="40.76497920039011" lon="8.95727976758186"><ele>637.0</ele><time>2026-05-01T07:45:03.992Z</time></trkpt><trkpt lat="40.76498173954872" lon="8.957116245716941"><ele>636.75</ele><time>2026-05-01T07:45:04.992Z</time></trkpt><trkpt lat="40.76498545056865" lon="8.956949830067312"><ele>636.5</ele><time>2026-05-01T07:45:05.992Z</time></trkpt><trkpt lat="40.76497802990336" lon="8.956780879855248"><ele>636.25</ele><time>2026-05-01T07:45:06.992Z</time></trkpt><trkpt lat="40.764972794892635" lon="8.95661627142585"><ele>636.0</ele><time>2026-05-01T07:45:07.992Z</time></trkpt><trkpt lat="40.76496486541408" lon="8.95645528662189"><ele>635.5</ele><time>2026-05-01T07:45:08.992Z</time></trkpt><trkpt lat="40.764961256633704" lon="8.956278825231063"><ele>635.0</ele><time>2026-05-01T07:45:09.992Z</time></trkpt><trkpt lat="40.76495492240748" lon="8.956111324897128"><ele>634.5</ele><time>2026-05-01T07:45:10.992Z</time></trkpt><trkpt lat="40.76495657221612" lon="8.955948988883677"><ele>634.0</ele><time>2026-05-01T07:45:11.992Z</time></trkpt><trkpt lat="40.764957348161715" lon="8.955804981290475"><ele>633.5</ele><time>2026-05-01T07:45:12.992Z</time></trkpt><trkpt lat="40.76496528534728" lon="8.955678591730749"><ele>633.0</ele><time>2026-05-01T07:45:13.992Z</time></trkpt><trkpt lat="40.76498292927059" lon="8.955552969394406"><ele>632.5</ele><time>2026-05-01T07:45:14.992Z</time></trkpt><trkpt lat="40.765009238745186" lon="8.95544655935389"><ele>632.0</ele><time>2026-05-01T07:45:15.992Z</time></trkpt><trkpt lat="40.765047703739334" lon="8.95535540493365"><ele>631.5</ele><time>2026-05-01T07:45:16.992Z</time></trkpt><trkpt lat="40.76509860731774" lon="8.955268402625004"><ele>631.0</ele><time>2026-05-01T07:45:17.992Z</time></trkpt><trkpt lat="40.765173656958076" lon="8.955201015105137"><ele>629.0</ele><time>2026-05-01T07:45:18.992Z</time></trkpt><trkpt lat="40.76525968012387" lon="8.955174743036157"><ele>627.0</ele><time>2026-05-01T07:45:19.992Z</time></trkpt><trkpt lat="40.76535611036715" lon="8.955149150537189"><ele>625.0</ele><time>2026-05-01T07:45:20.992Z</time></trkpt><trkpt lat="40.76545429090228" lon="8.955103908322103"><ele>623.0</ele><time>2026-05-01T07:45:21.992Z</time></trkpt><trkpt lat="40.765562430870574" lon="8.95508295762419"><ele>621.0</ele><time>2026-05-01T07:45:22.992Z</time></trkpt><trkpt lat="40.76565612464289" lon="8.955060845584544"><ele>620.6666666666666</ele><time>2026-05-01T07:45:23.992Z</time></trkpt><trkpt lat="40.76574557058493" lon="8.955034168620937"><ele>620.3333333333334</ele><time>2026-05-01T07:45:24.992Z</time></trkpt><trkpt lat="40.765830216307" lon="8.955000475769411"><ele>620.0</ele><time>2026-05-01T07:45:25.992Z</time></trkpt><trkpt lat="40.76591446615577" lon="8.954953946823368"><ele>619.6666666666667</ele><time>2026-05-01T07:45:26.992Z</time></trkpt><trkpt lat="40.766000363153864" lon="8.954917574215278"><ele>619.3333333333334</ele><time>2026-05-01T07:45:27.992Z</time></trkpt><trkpt lat="40.76607851040078" lon="8.954869227680092"><ele>619.0</ele><time>2026-05-01T07:45:28.992Z</time></trkpt><trkpt lat="40.76615364195583" lon="8.954806939380074"><ele>616.6</ele><time>2026-05-01T07:45:29.992Z</time></trkpt><trkpt lat="40.766227502204245" lon="8.954732651714346"><ele>614.2</ele><time>2026-05-01T07:45:30.992Z</time></trkpt><trkpt lat="40.76629123908146" lon="8.954650127875425"><ele>611.8000000000001</ele><time>2026-05-01T07:45:31.992Z</time></trkpt><trkpt lat="40.766356070572485" lon="8.954555558119347"><ele>609.4</ele><time>2026-05-01T07:45:32.992Z</time></trkpt><trkpt lat="40.76642122005274" lon="8.954444069811805"><ele>607.0</ele><time>2026-05-01T07:45:33.992Z</time></trkpt><trkpt lat="40.766495538407156" lon="8.954332825130003"><ele>607.0</ele><time>2026-05-01T07:45:34.992Z</time></trkpt><trkpt lat="40.766573752401165" lon="8.95422376490785"><ele>607.0</ele><time>2026-05-01T07:45:35.992Z</time></trkpt><trkpt lat="40.766660568144836" lon="8.954119389459862"><ele>607.0</ele><time>2026-05-01T07:45:36.992Z</time></trkpt><trkpt lat="40.76675587426697" lon="8.954025647795554"><ele>607.0</ele><time>2026-05-01T07:45:37.992Z</time></trkpt><trkpt lat="40.76684393634708" lon="8.953935472054015"><ele>603.25</ele><time>2026-05-01T07:45:38.992Z</time></trkpt><trkpt lat="40.766942881379435" lon="8.953840213465313"><ele>599.5</ele><time>2026-05-01T07:45:39.992Z</time></trkpt><trkpt lat="40.76702461508266" lon="8.953747243160088"><ele>595.75</ele><time>2026-05-01T07:45:40.992Z</time></trkpt><trkpt lat="40.7671246687788" lon="8.953625006171759"><ele>592.0</ele><time>2026-05-01T07:45:41.992Z</time></trkpt><trkpt lat="40.767218418425884" lon="8.95349428249388"><ele>592.25</ele><time>2026-05-01T07:45:42.992Z</time></trkpt><trkpt lat="40.7673030731109" lon="8.953357185431694"><ele>592.5</ele><time>2026-05-01T07:45:43.992Z</time></trkpt><trkpt lat="40.76737895209552" lon="8.9532207910529"><ele>592.75</ele><time>2026-05-01T07:45:44.992Z</time></trkpt><trkpt lat="40.767431858059524" lon="8.953053559015382"><ele>593.0</ele><time>2026-05-01T07:45:45.992Z</time></trkpt><trkpt lat="40.76743864895542" lon="8.95287107760432"><ele>593.0</ele><time>2026-05-01T07:45:46.992Z</time></trkpt><trkpt lat="40.76743323589889" lon="8.952716754594588"><ele>593.0</ele><time>2026-05-01T07:45:47.992Z</time></trkpt><trkpt lat="40.76742741745295" lon="8.952560110298117"><ele>593.0</ele><time>2026-05-01T07:45:48.992Z</time></trkpt><trkpt lat="40.767422877711766" lon="8.952423483485052"><ele>593.0</ele><time>2026-05-01T07:45:49.992Z</time></trkpt><trkpt lat="40.76743303027456" lon="8.952279580143724"><ele>593.0</ele><time>2026-05-01T07:45:50.992Z</time></trkpt><trkpt lat="40.76746208636595" lon="8.952131898619722"><ele>593.4</ele><time>2026-05-01T07:45:51.992Z</time></trkpt><trkpt lat="40.76751094681151" lon="8.951985871880051"><ele>593.8</ele><time>2026-05-01T07:45:52.992Z</time></trkpt><trkpt lat="40.76755356665755" lon="8.951865945831141"><ele>594.2</ele><time>2026-05-01T07:45:53.992Z</time></trkpt><trkpt lat="40.76761537099669" lon="8.95175941902532"><ele>594.6</ele><time>2026-05-01T07:45:54.992Z</time></trkpt><trkpt lat="40.767542159920424" lon="8.951895116528284"><ele>595.0</ele><time>2026-05-01T07:45:55.992Z</time></trkpt><trkpt lat="40.76760930161613" lon="8.951782179205589"><ele>594.0</ele><time>2026-05-01T07:45:56.992Z</time></trkpt><trkpt lat="40.76767864687221" lon="8.951675523446578"><ele>593.0</ele><time>2026-05-01T07:45:57.992Z</time></trkpt><trkpt lat="40.76775272372346" lon="8.951577750811648"><ele>592.0</ele><time>2026-05-01T07:45:58.992Z</time></trkpt><trkpt lat="40.767836812883395" lon="8.951492329376185"><ele>591.0</ele><time>2026-05-01T07:45:59.992Z</time></trkpt><trkpt lat="40.767934651654606" lon="8.951423164811926"><ele>590.0</ele><time>2026-05-01T07:46:00.992Z</time></trkpt><trkpt lat="40.76803787764721" lon="8.95135395928008"><ele>588.8</ele><time>2026-05-01T07:46:01.992Z</time></trkpt><trkpt lat="40.768140226877634" lon="8.95128842551187"><ele>587.6</ele><time>2026-05-01T07:46:02.992Z</time></trkpt><trkpt lat="40.76824433445195" lon="8.951221435579267"><ele>586.4</ele><time>2026-05-01T07:46:03.992Z</time></trkpt><trkpt lat="40.76834055632665" lon="8.951158181816892"><ele>585.2</ele><time>2026-05-01T07:46:04.992Z</time></trkpt><trkpt lat="40.768428785762104" lon="8.951100888354278"><ele>584.0</ele><time>2026-05-01T07:46:05.992Z</time></trkpt><trkpt lat="40.768519615278585" lon="8.951040749583035"><ele>582.5</ele><time>2026-05-01T07:46:06.992Z</time></trkpt><trkpt lat="40.76861296386876" lon="8.950978767781681"><ele>581.0</ele><time>2026-05-01T07:46:07.992Z</time></trkpt><trkpt lat="40.76871889735432" lon="8.950943936386572"><ele>579.5</ele><time>2026-05-01T07:46:08.992Z</time></trkpt><trkpt lat="40.76883450332883" lon="8.950912123117075"><ele>578.0</ele><time>2026-05-01T07:46:09.992Z</time></trkpt><trkpt lat="40.76895837087688" lon="8.950891373117498"><ele>578.25</ele><time>2026-05-01T07:46:10.992Z</time></trkpt><trkpt lat="40.76908322074507" lon="8.950868147826638"><ele>578.5</ele><time>2026-05-01T07:46:11.992Z</time></trkpt><trkpt lat="40.76921086598416" lon="8.950844352090137"><ele>578.75</ele><time>2026-05-01T07:46:12.992Z</time></trkpt><trkpt lat="40.769327998748736" lon="8.95082200616816"><ele>579.0</ele><time>2026-05-01T07:46:13.992Z</time></trkpt><trkpt lat="40.76944239105484" lon="8.95080487862799"><ele>579.0</ele><time>2026-05-01T07:46:14.992Z</time></trkpt><trkpt lat="40.76956478627236" lon="8.950782470603547"><ele>579.0</ele><time>2026-05-01T07:46:15.993Z</time></trkpt><trkpt lat="40.76968045597406" lon="8.950760681543892"><ele>579.0</ele><time>2026-05-01T07:46:16.993Z</time></trkpt><trkpt lat="40.76980191936184" lon="8.950748701893975"><ele>579.0</ele><time>2026-05-01T07:46:17.993Z</time></trkpt><trkpt lat="40.76991330010538" lon="8.950719608543283"><ele>579.0</ele><time>2026-05-01T07:46:18.993Z</time></trkpt><trkpt lat="40.770021886753106" lon="8.950695497267345"><ele>579.0</ele><time>2026-05-01T07:46:19.993Z</time></trkpt><trkpt lat="40.770130923276334" lon="8.950669425448584"><ele>579.0</ele><time>2026-05-01T07:46:20.993Z</time></trkpt><trkpt lat="40.77021793724849" lon="8.950645620203053"><ele>579.0</ele><time>2026-05-01T07:46:21.993Z</time></trkpt><trkpt lat="40.77031047274008" lon="8.950617013170408"><ele>579.0</ele><time>2026-05-01T07:46:22.993Z</time></trkpt><trkpt lat="40.770402789181894" lon="8.950580567282751"><ele>577.0</ele><time>2026-05-01T07:46:23.993Z</time></trkpt><trkpt lat="40.770490342323306" lon="8.95055001195022"><ele>575.0</ele><time>2026-05-01T07:46:24.993Z</time></trkpt><trkpt lat="40.77057199177241" lon="8.950524392046114"><ele>573.0</ele><time>2026-05-01T07:46:25.993Z</time></trkpt><trkpt lat="40.770650982200294" lon="8.95050291675765"><ele>571.0</ele><time>2026-05-01T07:46:26.993Z</time></trkpt><trkpt lat="40.770721514122" lon="8.950498719558034"><ele>569.0</ele><time>2026-05-01T07:46:27.993Z</time></trkpt><trkpt lat="40.770793592894776" lon="8.950512215432578"><ele>567.0</ele><time>2026-05-01T07:46:28.993Z</time></trkpt><trkpt lat="40.770864585638876" lon="8.950534734410077"><ele>567.0</ele><time>2026-05-01T07:46:29.993Z</time></trkpt><trkpt lat="40.77094092351255" lon="8.950556885899278"><ele>567.0</ele><time>2026-05-01T07:46:30.993Z</time></trkpt><trkpt lat="40.771012546463524" lon="8.950584041730588"><ele>567.0</ele><time>2026-05-01T07:46:31.993Z</time></trkpt><trkpt lat="40.77108397048843" lon="8.950612841194081"><ele>567.0</ele><time>2026-05-01T07:46:32.993Z</time></trkpt><trkpt lat="40.771187590253426" lon="8.95064479331151"><ele>567.0</ele><time>2026-05-01T07:46:34.993Z</time></trkpt><trkpt lat="40.77118274453035" lon="8.950420492346815"><ele>566.0</ele><time>2026-05-01T07:46:37.993Z</time></trkpt><trkpt lat="40.77127119289249" lon="8.950530418084744"><ele>565.0</ele><time>2026-05-01T07:46:38.993Z</time></trkpt><trkpt lat="40.771267424569494" lon="8.950414190789365"><ele>564.0</ele><time>2026-05-01T07:46:40.993Z</time></trkpt><trkpt lat="40.77125384327574" lon="8.950301452323542"><ele>563.0</ele><time>2026-05-01T07:46:42.993Z</time></trkpt><trkpt lat="40.77132635265339" lon="8.95024935931259"><ele>562.0</ele><time>2026-05-01T07:46:43.993Z</time></trkpt><trkpt lat="40.771379984598276" lon="8.95019453323009"><ele>561.0</ele><time>2026-05-01T07:46:44.993Z</time></trkpt><trkpt lat="40.77143874565128" lon="8.950123554246128"><ele>561.0</ele><time>2026-05-01T07:46:45.993Z</time></trkpt><trkpt lat="40.77150790993131" lon="8.950053190309987"><ele>561.0</ele><time>2026-05-01T07:46:46.993Z</time></trkpt><trkpt lat="40.77157837501634" lon="8.949984525281035"><ele>561.0</ele><time>2026-05-01T07:46:47.993Z</time></trkpt><trkpt lat="40.77165270702224" lon="8.949905691503446"><ele>561.0</ele><time>2026-05-01T07:46:48.993Z</time></trkpt><trkpt lat="40.77173855040783" lon="8.949827763858533"><ele>561.0</ele><time>2026-05-01T07:46:49.993Z</time></trkpt><trkpt lat="40.771817634923316" lon="8.949750901805276"><ele>556.8</ele><time>2026-05-01T07:46:50.993Z</time></trkpt><trkpt lat="40.77190024945998" lon="8.949672610928387"><ele>552.6</ele><time>2026-05-01T07:46:51.993Z</time></trkpt><trkpt lat="40.771976088644855" lon="8.949585828177803"><ele>548.4</ele><time>2026-05-01T07:46:52.993Z</time></trkpt><trkpt lat="40.772050054211036" lon="8.949496090999611"><ele>544.2</ele><time>2026-05-01T07:46:53.992Z</time></trkpt><trkpt lat="40.772114123650056" lon="8.949394139754297"><ele>540.0</ele><time>2026-05-01T07:46:54.992Z</time></trkpt><trkpt lat="40.772170149062035" lon="8.949289198841047"><ele>539.2</ele><time>2026-05-01T07:46:55.992Z</time></trkpt><trkpt lat="40.772220931775905" lon="8.949164836957722"><ele>538.4</ele><time>2026-05-01T07:46:56.992Z</time></trkpt><trkpt lat="40.77227420375336" lon="8.949045519841684"><ele>537.6</ele><time>2026-05-01T07:46:57.992Z</time></trkpt><trkpt lat="40.77232300709887" lon="8.94891767422111"><ele>536.8</ele><time>2026-05-01T07:46:58.992Z</time></trkpt><trkpt lat="40.77237990944501" lon="8.948816298753446"><ele>536.0</ele><time>2026-05-01T07:46:59.992Z</time></trkpt><trkpt lat="40.772430025432236" lon="8.948724821569861"><ele>536.0</ele><time>2026-05-01T07:47:00.992Z</time></trkpt><trkpt lat="40.77248702328534" lon="8.94864926474658"><ele>536.0</ele><time>2026-05-01T07:47:01.992Z</time></trkpt><trkpt lat="40.77254780984536" lon="8.948580270605584"><ele>536.0</ele><time>2026-05-01T07:47:02.992Z</time></trkpt><trkpt lat="40.772610739074864" lon="8.948513174903178"><ele>536.0</ele><time>2026-05-01T07:47:03.992Z</time></trkpt><trkpt lat="40.77267923196509" lon="8.948438479420716"><ele>536.0</ele><time>2026-05-01T07:47:04.992Z</time></trkpt><trkpt lat="40.772749314374074" lon="8.948371035704495"><ele>536.0</ele><time>2026-05-01T07:47:05.992Z</time></trkpt><trkpt lat="40.77282798788447" lon="8.948283404669057"><ele>532.0</ele><time>2026-05-01T07:47:06.992Z</time></trkpt><trkpt lat="40.77291100316888" lon="8.94819581142466"><ele>528.0</ele><time>2026-05-01T07:47:07.992Z</time></trkpt><trkpt lat="40.77298996831338" lon="8.94811153394701"><ele>524.0</ele><time>2026-05-01T07:47:08.992Z</time></trkpt><trkpt lat="40.77307017486844" lon="8.948033485680382"><ele>520.0</ele><time>2026-05-01T07:47:09.992Z</time></trkpt><trkpt lat="40.773137854905464" lon="8.947972016032367"><ele>516.0</ele><time>2026-05-01T07:47:10.992Z</time></trkpt><trkpt lat="40.77320220475007" lon="8.947927694271002"><ele>516.0</ele><time>2026-05-01T07:47:11.992Z</time></trkpt><trkpt lat="40.77327193858339" lon="8.947877401434692"><ele>516.0</ele><time>2026-05-01T07:47:12.992Z</time></trkpt><trkpt lat="40.77334170925905" lon="8.94782140137584"><ele>516.0</ele><time>2026-05-01T07:47:13.992Z</time></trkpt><trkpt lat="40.773428596107344" lon="8.94777778354801"><ele>516.0</ele><time>2026-05-01T07:47:14.992Z</time></trkpt><trkpt lat="40.77351477751938" lon="8.947735056589755"><ele>516.0</ele><time>2026-05-01T07:47:15.992Z</time></trkpt><trkpt lat="40.773606861598644" lon="8.947693507212705"><ele>516.0</ele><time>2026-05-01T07:47:16.992Z</time></trkpt><trkpt lat="40.77369013799636" lon="8.94765968459074"><ele>515.0</ele><time>2026-05-01T07:47:17.992Z</time></trkpt><trkpt lat="40.773767706401806" lon="8.947619720990096"><ele>514.0</ele><time>2026-05-01T07:47:18.992Z</time></trkpt><trkpt lat="40.7738546692309" lon="8.947573561648356"><ele>513.0</ele><time>2026-05-01T07:47:19.992Z</time></trkpt><trkpt lat="40.77394032111606" lon="8.94752167850924"><ele>512.0</ele><time>2026-05-01T07:47:20.992Z</time></trkpt><trkpt lat="40.77401859819105" lon="8.947469816326237"><ele>511.0</ele><time>2026-05-01T07:47:21.992Z</time></trkpt><trkpt lat="40.77409864751752" lon="8.947399893025537"><ele>511.00000000000006</ele><time>2026-05-01T07:47:22.992Z</time></trkpt><trkpt lat="40.774164494462624" lon="8.947323963472659"><ele>511.0</ele><time>2026-05-01T07:47:23.992Z</time></trkpt><trkpt lat="40.77421937921889" lon="8.947234518806566"><ele>511.0</ele><time>2026-05-01T07:47:24.992Z</time></trkpt><trkpt lat="40.77426636758117" lon="8.947145044138457"><ele>511.0</ele><time>2026-05-01T07:47:25.992Z</time></trkpt><trkpt lat="40.77430022291309" lon="8.947031574918585"><ele>511.00000000000006</ele><time>2026-05-01T07:47:26.992Z</time></trkpt><trkpt lat="40.774340926730865" lon="8.94691836793742"><ele>511.0</ele><time>2026-05-01T07:47:27.992Z</time></trkpt><trkpt lat="40.77437975863291" lon="8.946800356617883"><ele>509.33333333333337</ele><time>2026-05-01T07:47:28.992Z</time></trkpt><trkpt lat="40.77442328448722" lon="8.946709228964322"><ele>507.6666666666667</ele><time>2026-05-01T07:47:29.992Z</time></trkpt><trkpt lat="40.77446902102823" lon="8.946610732961842"><ele>506.0</ele><time>2026-05-01T07:47:30.992Z</time></trkpt><trkpt lat="40.77452303298952" lon="8.946509853917826"><ele>504.33333333333337</ele><time>2026-05-01T07:47:31.992Z</time></trkpt><trkpt lat="40.774563117020826" lon="8.946413987543298"><ele>502.6666666666667</ele><time>2026-05-01T07:47:32.992Z</time></trkpt><trkpt lat="40.77459874504961" lon="8.946327665853218"><ele>501.0</ele><time>2026-05-01T07:47:33.992Z</time></trkpt><trkpt lat="40.774628637402806" lon="8.946239062902054"><ele>501.0</ele><time>2026-05-01T07:47:34.992Z</time></trkpt><trkpt lat="40.77466208367264" lon="8.946114055234942"><ele>501.0</ele><time>2026-05-01T07:47:35.993Z</time></trkpt><trkpt lat="40.7746939348473" lon="8.945984523292736"><ele>501.0</ele><time>2026-05-01T07:47:36.993Z</time></trkpt><trkpt lat="40.774712917139276" lon="8.94585346989098"><ele>501.0</ele><time>2026-05-01T07:47:37.993Z</time></trkpt><trkpt lat="40.77473300965435" lon="8.945729617147046"><ele>501.0</ele><time>2026-05-01T07:47:38.993Z</time></trkpt><trkpt lat="40.7747549868413" lon="8.945610675540253"><ele>499.6</ele><time>2026-05-01T07:47:39.993Z</time></trkpt><trkpt lat="40.774770497325676" lon="8.94549126809723"><ele>498.20000000000005</ele><time>2026-05-01T07:47:40.993Z</time></trkpt><trkpt lat="40.774790354894556" lon="8.94538609175905"><ele>496.79999999999995</ele><time>2026-05-01T07:47:41.993Z</time></trkpt><trkpt lat="40.7748109222242" lon="8.945272652853001"><ele>495.4</ele><time>2026-05-01T07:47:42.993Z</time></trkpt><trkpt lat="40.77484133069561" lon="8.945156187471913"><ele>494.0</ele><time>2026-05-01T07:47:43.993Z</time></trkpt><trkpt lat="40.77487651286386" lon="8.94503418493444"><ele>492.79999999999995</ele><time>2026-05-01T07:47:44.993Z</time></trkpt><trkpt lat="40.77491422788078" lon="8.944900868958392"><ele>491.59999999999997</ele><time>2026-05-01T07:47:45.993Z</time></trkpt><trkpt lat="40.77495084549003" lon="8.944775659598779"><ele>490.4</ele><time>2026-05-01T07:47:46.993Z</time></trkpt><trkpt lat="40.77498140987205" lon="8.94466539184745"><ele>489.2</ele><time>2026-05-01T07:47:47.993Z</time></trkpt><trkpt lat="40.77501060717121" lon="8.944575530386008"><ele>488.0</ele><time>2026-05-01T07:47:48.993Z</time></trkpt><trkpt lat="40.77505715327431" lon="8.944491946141197"><ele>487.99999999999994</ele><time>2026-05-01T07:47:49.993Z</time></trkpt><trkpt lat="40.77510824732237" lon="8.944419761295487"><ele>488.0</ele><time>2026-05-01T07:47:50.993Z</time></trkpt><trkpt lat="40.77516872102401" lon="8.944372405894839"><ele>487.99999999999994</ele><time>2026-05-01T07:47:51.993Z</time></trkpt><trkpt lat="40.77523281137946" lon="8.944341971934334"><ele>487.99999999999994</ele><time>2026-05-01T07:47:52.993Z</time></trkpt><trkpt lat="40.775296460952795" lon="8.94430967505752"><ele>488.0</ele><time>2026-05-01T07:47:53.993Z</time></trkpt><trkpt lat="40.77536364766137" lon="8.944268804302645"><ele>487.99999999999994</ele><time>2026-05-01T07:47:54.993Z</time></trkpt><trkpt lat="40.77542439830282" lon="8.944206873335792"><ele>487.99999999999994</ele><time>2026-05-01T07:47:55.993Z</time></trkpt><trkpt lat="40.77549630393926" lon="8.944112012326851"><ele>485.59999999999997</ele><time>2026-05-01T07:47:56.993Z</time></trkpt><trkpt lat="40.77558399918739" lon="8.944009891833286"><ele>483.19999999999993</ele><time>2026-05-01T07:47:57.993Z</time></trkpt><trkpt lat="40.775665861302926" lon="8.943912851858785"><ele>480.8</ele><time>2026-05-01T07:47:58.993Z</time></trkpt><trkpt lat="40.775741918794886" lon="8.943810185528468"><ele>478.4</ele><time>2026-05-01T07:47:59.993Z</time></trkpt><trkpt lat="40.77580899683876" lon="8.943690502908641"><ele>476.0</ele><time>2026-05-01T07:48:00.993Z</time></trkpt><trkpt lat="40.77587851567449" lon="8.943563433325856"><ele>476.0</ele><time>2026-05-01T07:48:01.993Z</time></trkpt><trkpt lat="40.775946805313865" lon="8.943440485140558"><ele>476.0</ele><time>2026-05-01T07:48:02.993Z</time></trkpt><trkpt lat="40.77601841497408" lon="8.943322046805863"><ele>476.0</ele><time>2026-05-01T07:48:03.993Z</time></trkpt><trkpt lat="40.77608915792009" lon="8.943214459567391"><ele>476.0</ele><time>2026-05-01T07:48:04.993Z</time></trkpt><trkpt lat="40.77616300856832" lon="8.943101892880991"><ele>475.4</ele><time>2026-05-01T07:48:05.993Z</time></trkpt><trkpt lat="40.77624173540089" lon="8.942993260870724"><ele>474.8</ele><time>2026-05-01T07:48:06.993Z</time></trkpt><trkpt lat="40.77632546765742" lon="8.942886864222357"><ele>474.19999999999993</ele><time>2026-05-01T07:48:07.993Z</time></trkpt><trkpt lat="40.776399425023065" lon="8.94278740923077"><ele>473.59999999999997</ele><time>2026-05-01T07:48:08.993Z</time></trkpt><trkpt lat="40.776460286324294" lon="8.942696578092253"><ele>473.0</ele><time>2026-05-01T07:48:09.993Z</time></trkpt><trkpt lat="40.77652227011186" lon="8.942606143351089"><ele>472.99999999999994</ele><time>2026-05-01T07:48:10.993Z</time></trkpt><trkpt lat="40.77658910847465" lon="8.942501465694464"><ele>473.0</ele><time>2026-05-01T07:48:11.993Z</time></trkpt><trkpt lat="40.776643744133814" lon="8.942407891373817"><ele>473.0</ele><time>2026-05-01T07:48:12.993Z</time></trkpt><trkpt lat="40.77668308643513" lon="8.942321000012901"><ele>473.0</ele><time>2026-05-01T07:48:13.993Z</time></trkpt><trkpt lat="40.77673996973581" lon="8.942233068097579"><ele>472.99999999999994</ele><time>2026-05-01T07:48:14.993Z</time></trkpt><trkpt lat="40.776795666012454" lon="8.94217021440699"><ele>473.0</ele><time>2026-05-01T07:48:15.993Z</time></trkpt><trkpt lat="40.77685892943516" lon="8.942085512547436"><ele>473.0</ele><time>2026-05-01T07:48:16.993Z</time></trkpt><trkpt lat="40.7769266514345" lon="8.941980746653895"><ele>472.99999999999994</ele><time>2026-05-01T07:48:17.993Z</time></trkpt><trkpt lat="40.77700501917709" lon="8.941865353168113"><ele>472.99999999999994</ele><time>2026-05-01T07:48:18.993Z</time></trkpt><trkpt lat="40.77708167185288" lon="8.941764989610542"><ele>473.0</ele><time>2026-05-01T07:48:19.993Z</time></trkpt><trkpt lat="40.77714738007865" lon="8.94165489691451"><ele>473.0</ele><time>2026-05-01T07:48:20.993Z</time></trkpt><trkpt lat="40.77720668012518" lon="8.941538383703582"><ele>473.79999999999995</ele><time>2026-05-01T07:48:21.993Z</time></trkpt><trkpt lat="40.77727669054504" lon="8.941429465485252"><ele>474.59999999999997</ele><time>2026-05-01T07:48:22.993Z</time></trkpt><trkpt lat="40.777338226378426" lon="8.941329049012738"><ele>475.40000000000003</ele><time>2026-05-01T07:48:23.993Z</time></trkpt><trkpt lat="40.77740383338898" lon="8.941219685144786"><ele>476.20000000000005</ele><time>2026-05-01T07:48:24.993Z</time></trkpt><trkpt lat="40.777464313182264" lon="8.941103741227971"><ele>477.0</ele><time>2026-05-01T07:48:25.993Z</time></trkpt><trkpt lat="40.777530852701474" lon="8.940990562928825"><ele>477.0</ele><time>2026-05-01T07:48:26.993Z</time></trkpt><trkpt lat="40.77759572557643" lon="8.94088282660468"><ele>477.00000000000006</ele><time>2026-05-01T07:48:27.993Z</time></trkpt><trkpt lat="40.777653750997565" lon="8.940776019476083"><ele>477.00000000000006</ele><time>2026-05-01T07:48:28.993Z</time></trkpt><trkpt lat="40.77771186498479" lon="8.940687530855959"><ele>477.0</ele><time>2026-05-01T07:48:29.993Z</time></trkpt><trkpt lat="40.77776914034083" lon="8.940603807078112"><ele>477.0</ele><time>2026-05-01T07:48:30.993Z</time></trkpt><trkpt lat="40.777833908013946" lon="8.940522063116488"><ele>475.3333333333333</ele><time>2026-05-01T07:48:31.993Z</time></trkpt><trkpt lat="40.77788898490484" lon="8.940439755220417"><ele>473.66666666666663</ele><time>2026-05-01T07:48:32.993Z</time></trkpt><trkpt lat="40.77794979980434" lon="8.940365487109515"><ele>472.0</ele><time>2026-05-01T07:48:33.993Z</time></trkpt><trkpt lat="40.778018386486075" lon="8.940297440908083"><ele>470.3333333333333</ele><time>2026-05-01T07:48:34.993Z</time></trkpt><trkpt lat="40.77809512068629" lon="8.940233497814281"><ele>468.66666666666663</ele><time>2026-05-01T07:48:35.993Z</time></trkpt><trkpt lat="40.778178321834815" lon="8.940162474942378"><ele>467.0</ele><time>2026-05-01T07:48:36.993Z</time></trkpt><trkpt lat="40.77825499110971" lon="8.940107515212652"><ele>466.99999999999994</ele><time>2026-05-01T07:48:37.993Z</time></trkpt><trkpt lat="40.77833824235363" lon="8.940057472713793"><ele>467.0</ele><time>2026-05-01T07:48:38.993Z</time></trkpt><trkpt lat="40.778423763499106" lon="8.940024531588227"><ele>467.0</ele><time>2026-05-01T07:48:39.993Z</time></trkpt><trkpt lat="40.778503492594986" lon="8.940013907719814"><ele>467.0</ele><time>2026-05-01T07:48:40.993Z</time></trkpt><trkpt lat="40.778592764557544" lon="8.94000402650535"><ele>466.99999999999994</ele><time>2026-05-01T07:48:41.993Z</time></trkpt><trkpt lat="40.77867883849655" lon="8.939966472275737"><ele>467.0</ele><time>2026-05-01T07:48:42.993Z</time></trkpt><trkpt lat="40.77874872324619" lon="8.939922588381142"><ele>465.8333333333333</ele><time>2026-05-01T07:48:43.993Z</time></trkpt><trkpt lat="40.77881865150293" lon="8.939867017623712"><ele>464.66666666666663</ele><time>2026-05-01T07:48:44.993Z</time></trkpt><trkpt lat="40.77890291390012" lon="8.93978838788006"><ele>463.5</ele><time>2026-05-01T07:48:45.993Z</time></trkpt><trkpt lat="40.778976879085306" lon="8.939718850191037"><ele>462.33333333333337</ele><time>2026-05-01T07:48:46.993Z</time></trkpt><trkpt lat="40.77904271378472" lon="8.939652977209148"><ele>461.1666666666667</ele><time>2026-05-01T07:48:47.993Z</time></trkpt><trkpt lat="40.77910783428543" lon="8.939591042275183"><ele>460.0</ele><time>2026-05-01T07:48:48.993Z</time></trkpt><trkpt lat="40.77917038698385" lon="8.939533376151028"><ele>460.0</ele><time>2026-05-01T07:48:49.993Z</time></trkpt><trkpt lat="40.77924788951386" lon="8.939472132124171"><ele>460.0</ele><time>2026-05-01T07:48:50.993Z</time></trkpt><trkpt lat="40.7793162014411" lon="8.939405661934282"><ele>460.0</ele><time>2026-05-01T07:48:51.993Z</time></trkpt><trkpt lat="40.77938617542616" lon="8.939331692416472"><ele>460.0</ele><time>2026-05-01T07:48:52.993Z</time></trkpt><trkpt lat="40.77945044269102" lon="8.939245987793772"><ele>460.0</ele><time>2026-05-01T07:48:53.993Z</time></trkpt><trkpt lat="40.77952287383645" lon="8.939154377493212"><ele>457.83333333333337</ele><time>2026-05-01T07:48:54.993Z</time></trkpt><trkpt lat="40.779576789337696" lon="8.939078578795158"><ele>455.6666666666667</ele><time>2026-05-01T07:48:55.993Z</time></trkpt><trkpt lat="40.77962566794893" lon="8.939014705106384"><ele>453.5</ele><time>2026-05-01T07:48:56.993Z</time></trkpt><trkpt lat="40.77969532839746" lon="8.938928715514404"><ele>451.33333333333337</ele><time>2026-05-01T07:48:57.993Z</time></trkpt><trkpt lat="40.77976018929594" lon="8.938856768660736"><ele>449.1666666666667</ele><time>2026-05-01T07:48:58.993Z</time></trkpt><trkpt lat="40.779826622664594" lon="8.93879485758606"><ele>447.0</ele><time>2026-05-01T07:48:59.991Z</time></trkpt><trkpt lat="40.77989245558413" lon="8.938731884574759"><ele>447.0</ele><time>2026-05-01T07:49:00.992Z</time></trkpt><trkpt lat="40.779950061038186" lon="8.938664141726342"><ele>447.0</ele><time>2026-05-01T07:49:01.992Z</time></trkpt><trkpt lat="40.78001449150865" lon="8.938601046443472"><ele>447.0</ele><time>2026-05-01T07:49:02.991Z</time></trkpt><trkpt lat="40.78007617192685" lon="8.93852700831587"><ele>447.0</ele><time>2026-05-01T07:49:03.991Z</time></trkpt><trkpt lat="40.78013023533443" lon="8.938449210141181"><ele>447.0</ele><time>2026-05-01T07:49:04.991Z</time></trkpt><trkpt lat="40.78017583759373" lon="8.938375974289903"><ele>447.0</ele><time>2026-05-01T07:49:05.992Z</time></trkpt><trkpt lat="40.780214728640175" lon="8.938304011317545"><ele>443.0</ele><time>2026-05-01T07:49:06.991Z</time></trkpt><trkpt lat="40.78027565645961" lon="8.938160516135278"><ele>439.00000000000006</ele><time>2026-05-01T07:49:08.992Z</time></trkpt><trkpt lat="40.78031755825257" lon="8.938084080825144"><ele>435.00000000000006</ele><time>2026-05-01T07:49:09.991Z</time></trkpt><trkpt lat="40.78039224832457" lon="8.937954968526386"><ele>431.0</ele><time>2026-05-01T07:49:11.991Z</time></trkpt><trkpt lat="40.780468565816165" lon="8.937821694394962"><ele>427.0</ele><time>2026-05-01T07:49:13.991Z</time></trkpt><trkpt lat="40.7805171948376" lon="8.937758876569491"><ele>427.00000000000006</ele><time>2026-05-01T07:49:14.991Z</time></trkpt><trkpt lat="40.780561636570155" lon="8.937688717269085"><ele>427.0</ele><time>2026-05-01T07:49:15.991Z</time></trkpt><trkpt lat="40.78060823754744" lon="8.937621681662923"><ele>427.0</ele><time>2026-05-01T07:49:16.991Z</time></trkpt><trkpt lat="40.78068975719784" lon="8.9374808467454"><ele>427.0</ele><time>2026-05-01T07:49:18.991Z</time></trkpt><trkpt lat="40.78075409624827" lon="8.937365565116428"><ele>427.00000000000006</ele><time>2026-05-01T07:49:20.991Z</time></trkpt><trkpt lat="40.7807679474254" lon="8.937277593107922"><ele>427.0</ele><time>2026-05-01T07:49:22.991Z</time></trkpt><trkpt lat="40.78074237749007" lon="8.937127184504002"><ele>425.50000000000006</ele><time>2026-05-01T07:49:24.991Z</time></trkpt><trkpt lat="40.7807417484377" lon="8.937029263133393"><ele>424.0</ele><time>2026-05-01T07:49:26.991Z</time></trkpt><trkpt lat="40.78081293904243" lon="8.936901988702951"><ele>422.5</ele><time>2026-05-01T07:49:29.991Z</time></trkpt><trkpt lat="40.780843214208964" lon="8.93681374525259"><ele>421.0</ele><time>2026-05-01T07:49:30.991Z</time></trkpt><trkpt lat="40.78088033040611" lon="8.936704587963776"><ele>419.50000000000006</ele><time>2026-05-01T07:49:31.991Z</time></trkpt><trkpt lat="40.78092656956631" lon="8.93661029973022"><ele>418.0</ele><time>2026-05-01T07:49:32.991Z</time></trkpt><trkpt lat="40.78097910983748" lon="8.936520535051407"><ele>419.33333333333337</ele><time>2026-05-01T07:49:33.991Z</time></trkpt><trkpt lat="40.781045633216515" lon="8.936472126540687"><ele>420.6666666666667</ele><time>2026-05-01T07:49:34.991Z</time></trkpt><trkpt lat="40.78112184452184" lon="8.936437943798618"><ele>422.0</ele><time>2026-05-01T07:49:35.991Z</time></trkpt><trkpt lat="40.78120634345126" lon="8.936400737860405"><ele>423.33333333333337</ele><time>2026-05-01T07:49:36.991Z</time></trkpt><trkpt lat="40.781285209858204" lon="8.936382635813736"><ele>424.6666666666667</ele><time>2026-05-01T07:49:37.991Z</time></trkpt><trkpt lat="40.78135356860618" lon="8.936348353798305"><ele>426.0</ele><time>2026-05-01T07:49:38.991Z</time></trkpt><trkpt lat="40.78144231427841" lon="8.936244267198765"><ele>426.0</ele><time>2026-05-01T07:49:40.991Z</time></trkpt><trkpt lat="40.7814946232473" lon="8.936190576698191"><ele>426.0</ele><time>2026-05-01T07:49:41.991Z</time></trkpt><trkpt lat="40.78153751058867" lon="8.93612960416956"><ele>426.0</ele><time>2026-05-01T07:49:42.991Z</time></trkpt><trkpt lat="40.78158868068933" lon="8.936052962471383"><ele>426.0</ele><time>2026-05-01T07:49:43.991Z</time></trkpt><trkpt lat="40.78164250322028" lon="8.935959343891652"><ele>426.0</ele><time>2026-05-01T07:49:44.991Z</time></trkpt><trkpt lat="40.78169550483355" lon="8.935846936927508"><ele>426.0</ele><time>2026-05-01T07:49:45.991Z</time></trkpt><trkpt lat="40.78175677512806" lon="8.935749239717723"><ele>425.0</ele><time>2026-05-01T07:49:46.991Z</time></trkpt><trkpt lat="40.78181635294546" lon="8.935646196419789"><ele>424.0</ele><time>2026-05-01T07:49:47.991Z</time></trkpt><trkpt lat="40.78186882742286" lon="8.93554355069939"><ele>423.0</ele><time>2026-05-01T07:49:48.991Z</time></trkpt><trkpt lat="40.78191682417073" lon="8.935447781521844"><ele>422.0</ele><time>2026-05-01T07:49:49.991Z</time></trkpt><trkpt lat="40.78196851220485" lon="8.935358588337776"><ele>421.0</ele><time>2026-05-01T07:49:50.991Z</time></trkpt><trkpt lat="40.78203431929427" lon="8.935282408072954"><ele>421.0</ele><time>2026-05-01T07:49:51.991Z</time></trkpt><trkpt lat="40.78210913531937" lon="8.935221821090934"><ele>421.0</ele><time>2026-05-01T07:49:52.991Z</time></trkpt><trkpt lat="40.782193608747356" lon="8.935172168391327"><ele>421.0</ele><time>2026-05-01T07:49:53.991Z</time></trkpt><trkpt lat="40.78229180000657" lon="8.93512527723998"><ele>421.0</ele><time>2026-05-01T07:49:54.991Z</time></trkpt><trkpt lat="40.782396055817586" lon="8.935083062591136"><ele>421.0</ele><time>2026-05-01T07:49:55.991Z</time></trkpt><trkpt lat="40.78247897786852" lon="8.93504554710834"><ele>421.0</ele><time>2026-05-01T07:49:56.991Z</time></trkpt><trkpt lat="40.78255676523976" lon="8.934989180202539"><ele>421.0</ele><time>2026-05-01T07:49:57.991Z</time></trkpt><trkpt lat="40.78263397336871" lon="8.934919864569123"><ele>421.0</ele><time>2026-05-01T07:49:58.991Z</time></trkpt><trkpt lat="40.78271557521469" lon="8.934877676837033"><ele>421.0</ele><time>2026-05-01T07:49:59.991Z</time></trkpt><trkpt lat="40.7828106156344" lon="8.934828030681448"><ele>421.0</ele><time>2026-05-01T07:50:00.991Z</time></trkpt><trkpt lat="40.78290582912658" lon="8.934792141325005"><ele>421.0</ele><time>2026-05-01T07:50:01.991Z</time></trkpt><trkpt lat="40.783011822163445" lon="8.93472267395817"><ele>421.0</ele><time>2026-05-01T07:50:02.992Z</time></trkpt><trkpt lat="40.78312678913445" lon="8.934659552795656"><ele>421.0</ele><time>2026-05-01T07:50:03.992Z</time></trkpt><trkpt lat="40.78322243210205" lon="8.93461599354085"><ele>421.0</ele><time>2026-05-01T07:50:04.992Z</time></trkpt><trkpt lat="40.78329871890767" lon="8.934566701131068"><ele>421.0</ele><time>2026-05-01T07:50:05.992Z</time></trkpt><trkpt lat="40.78337048949451" lon="8.934507735055998"><ele>421.00000000000006</ele><time>2026-05-01T07:50:06.992Z</time></trkpt><trkpt lat="40.78341850148846" lon="8.934436314332736"><ele>421.0</ele><time>2026-05-01T07:50:07.992Z</time></trkpt><trkpt lat="40.783440406378034" lon="8.934356069299122"><ele>421.0</ele><time>2026-05-01T07:50:08.992Z</time></trkpt><trkpt lat="40.783438113781735" lon="8.934201939220022"><ele>421.0</ele><time>2026-05-01T07:50:10.992Z</time></trkpt><trkpt lat="40.783435851852076" lon="8.934096620176458"><ele>421.00000000000006</ele><time>2026-05-01T07:50:11.992Z</time></trkpt><trkpt lat="40.78342772512069" lon="8.93399356239702"><ele>421.0</ele><time>2026-05-01T07:50:12.992Z</time></trkpt><trkpt lat="40.78341429372256" lon="8.933883581325691"><ele>421.33333333333337</ele><time>2026-05-01T07:50:13.992Z</time></trkpt><trkpt lat="40.78341482017395" lon="8.933798183441265"><ele>421.6666666666667</ele><time>2026-05-01T07:50:14.992Z</time></trkpt><trkpt lat="40.78346463525274" lon="8.933668963241185"><ele>422.0</ele><time>2026-05-01T07:50:16.992Z</time></trkpt><trkpt lat="40.78351451747672" lon="8.93361185424908"><ele>422.33333333333337</ele><time>2026-05-01T07:50:17.992Z</time></trkpt><trkpt lat="40.783581231015035" lon="8.933567861468026"><ele>422.6666666666667</ele><time>2026-05-01T07:50:18.992Z</time></trkpt><trkpt lat="40.78365316459404" lon="8.93352166425264"><ele>423.0</ele><time>2026-05-01T07:50:19.992Z</time></trkpt><trkpt lat="40.783733340304025" lon="8.933473563691916"><ele>424.0</ele><time>2026-05-01T07:50:20.992Z</time></trkpt><trkpt lat="40.783817593305166" lon="8.933433595429053"><ele>425.0</ele><time>2026-05-01T07:50:21.992Z</time></trkpt><trkpt lat="40.783899845631176" lon="8.9333792037445"><ele>425.99999999999994</ele><time>2026-05-01T07:50:22.992Z</time></trkpt><trkpt lat="40.7839755033448" lon="8.933314391121685"><ele>427.0</ele><time>2026-05-01T07:50:23.992Z</time></trkpt><trkpt lat="40.784059233344614" lon="8.933237854347547"><ele>428.0</ele><time>2026-05-01T07:50:24.992Z</time></trkpt><trkpt lat="40.78414892794486" lon="8.933156578384082"><ele>428.0</ele><time>2026-05-01T07:50:25.992Z</time></trkpt><trkpt lat="40.784239372318005" lon="8.933090163972864"><ele>427.99999999999994</ele><time>2026-05-01T07:50:26.992Z</time></trkpt><trkpt lat="40.784337094230686" lon="8.933027192470378"><ele>427.99999999999994</ele><time>2026-05-01T07:50:27.992Z</time></trkpt><trkpt lat="40.78442765613464" lon="8.93295501452345"><ele>428.0</ele><time>2026-05-01T07:50:28.992Z</time></trkpt><trkpt lat="40.78450622507542" lon="8.932847701157769"><ele>428.0</ele><time>2026-05-01T07:50:29.992Z</time></trkpt><trkpt lat="40.78458251821566" lon="8.932690880481646"><ele>427.75</ele><time>2026-05-01T07:50:30.992Z</time></trkpt><trkpt lat="40.78468711181146" lon="8.932486339576426"><ele>427.5</ele><time>2026-05-01T07:50:31.992Z</time></trkpt><trkpt lat="40.78473831848352" lon="8.93240928676271"><ele>427.25</ele><time>2026-05-01T07:50:33.992Z</time></trkpt><trkpt lat="40.784804320493684" lon="8.93230831270715"><ele>427.0</ele><time>2026-05-01T07:50:34.992Z</time></trkpt><trkpt lat="40.78485876955442" lon="8.932196244550346"><ele>427.0</ele><time>2026-05-01T07:50:35.992Z</time></trkpt><trkpt lat="40.78493112033917" lon="8.932085468731199"><ele>427.0</ele><time>2026-05-01T07:50:36.992Z</time></trkpt><trkpt lat="40.78501709731133" lon="8.93197156183005"><ele>427.0</ele><time>2026-05-01T07:50:37.992Z</time></trkpt><trkpt lat="40.78511437170268" lon="8.931864713426872"><ele>427.0</ele><time>2026-05-01T07:50:38.992Z</time></trkpt><trkpt lat="40.78521351719676" lon="8.931772891649679"><ele>427.20000000000005</ele><time>2026-05-01T07:50:39.992Z</time></trkpt><trkpt lat="40.785315035977085" lon="8.93169952178458"><ele>427.40000000000003</ele><time>2026-05-01T07:50:40.992Z</time></trkpt><trkpt lat="40.785410665713904" lon="8.931638691921954"><ele>427.59999999999997</ele><time>2026-05-01T07:50:41.992Z</time></trkpt><trkpt lat="40.78548958092915" lon="8.931570565783636"><ele>427.79999999999995</ele><time>2026-05-01T07:50:42.992Z</time></trkpt><trkpt lat="40.785559661623196" lon="8.931483010813666"><ele>428.0</ele><time>2026-05-01T07:50:43.992Z</time></trkpt><trkpt lat="40.78563041614111" lon="8.931375928740694"><ele>428.0</ele><time>2026-05-01T07:50:44.992Z</time></trkpt><trkpt lat="40.7857017185502" lon="8.931257490789633"><ele>427.99999999999994</ele><time>2026-05-01T07:50:45.992Z</time></trkpt><trkpt lat="40.78576716199202" lon="8.931126878550474"><ele>427.99999999999994</ele><time>2026-05-01T07:50:46.992Z</time></trkpt><trkpt lat="40.78583667995653" lon="8.931011500916254"><ele>428.0</ele><time>2026-05-01T07:50:47.992Z</time></trkpt><trkpt lat="40.785895739324665" lon="8.930905954248505"><ele>428.0</ele><time>2026-05-01T07:50:48.992Z</time></trkpt><trkpt lat="40.785953156420454" lon="8.930784002878415"><ele>427.5</ele><time>2026-05-01T07:50:49.992Z</time></trkpt><trkpt lat="40.78602573436309" lon="8.930666413961884"><ele>427.0</ele><time>2026-05-01T07:50:50.992Z</time></trkpt><trkpt lat="40.78609528691171" lon="8.930553239816598"><ele>426.5</ele><time>2026-05-01T07:50:51.992Z</time></trkpt><trkpt lat="40.786169191032144" lon="8.93042558900405"><ele>426.0</ele><time>2026-05-01T07:50:52.992Z</time></trkpt><trkpt lat="40.78624673085586" lon="8.930295926350368"><ele>426.0</ele><time>2026-05-01T07:50:53.992Z</time></trkpt><trkpt lat="40.786342654472676" lon="8.93017857696222"><ele>426.0</ele><time>2026-05-01T07:50:54.992Z</time></trkpt><trkpt lat="40.78643611928413" lon="8.93006660241301"><ele>426.0</ele><time>2026-05-01T07:50:55.992Z</time></trkpt><trkpt lat="40.78652725920798" lon="8.929984642765465"><ele>426.0</ele><time>2026-05-01T07:50:56.992Z</time></trkpt><trkpt lat="40.78662227028086" lon="8.92992336630713"><ele>424.6</ele><time>2026-05-01T07:50:57.992Z</time></trkpt><trkpt lat="40.78672315771465" lon="8.929915603392233"><ele>423.20000000000005</ele><time>2026-05-01T07:50:58.992Z</time></trkpt><trkpt lat="40.786795091263805" lon="8.929896767702111"><ele>421.79999999999995</ele><time>2026-05-01T07:50:59.992Z</time></trkpt><trkpt lat="40.786871395438" lon="8.92988155379979"><ele>420.4</ele><time>2026-05-01T07:51:00.992Z</time></trkpt><trkpt lat="40.78696350360458" lon="8.929936115912252"><ele>419.0</ele><time>2026-05-01T07:51:02.992Z</time></trkpt><trkpt lat="40.787037065181856" lon="8.930071693681636"><ele>419.0</ele><time>2026-05-01T07:51:04.99Z</time></trkpt><trkpt lat="40.787084481853654" lon="8.930170001541706"><ele>419.0</ele><time>2026-05-01T07:51:05.991Z</time></trkpt><trkpt lat="40.78712038361784" lon="8.930291229380948"><ele>419.0</ele><time>2026-05-01T07:51:06.991Z</time></trkpt><trkpt lat="40.78715556216745" lon="8.930407051476498"><ele>419.0</ele><time>2026-05-01T07:51:07.991Z</time></trkpt><trkpt lat="40.787264135211174" lon="8.930509685783365"><ele>419.0</ele><time>2026-05-01T07:51:09.991Z</time></trkpt><trkpt lat="40.78731926862144" lon="8.9305631937387"><ele>418.99999999999994</ele><time>2026-05-01T07:51:10.991Z</time></trkpt><trkpt lat="40.78737264856397" lon="8.930629988847402"><ele>419.0</ele><time>2026-05-01T07:51:11.99Z</time></trkpt><trkpt lat="40.787422143010915" lon="8.930711945892728"><ele>419.0</ele><time>2026-05-01T07:51:12.99Z</time></trkpt><trkpt lat="40.787425623571565" lon="8.930872288107594"><ele>419.0</ele><time>2026-05-01T07:51:14.99Z</time></trkpt><trkpt lat="40.787417894359564" lon="8.930955900159638"><ele>418.99999999999994</ele><time>2026-05-01T07:51:15.99Z</time></trkpt><trkpt lat="40.78739200741286" lon="8.931039002022734"><ele>419.0</ele><time>2026-05-01T07:51:16.99Z</time></trkpt><trkpt lat="40.78737303075341" lon="8.931150301727381"><ele>419.49999999999994</ele><time>2026-05-01T07:51:17.991Z</time></trkpt><trkpt lat="40.78736606431227" lon="8.931248217992977"><ele>420.0</ele><time>2026-05-01T07:51:18.991Z</time></trkpt><trkpt lat="40.78736774313362" lon="8.931333798863033"><ele>420.5</ele><time>2026-05-01T07:51:19.991Z</time></trkpt><trkpt lat="40.78740310754652" lon="8.931447947727218"><ele>421.0</ele><time>2026-05-01T07:51:20.991Z</time></trkpt><trkpt lat="40.78741567230885" lon="8.931549287246801"><ele>421.49999999999994</ele><time>2026-05-01T07:51:21.991Z</time></trkpt><trkpt lat="40.78743248144938" lon="8.931639359742013"><ele>422.0</ele><time>2026-05-01T07:51:22.991Z</time></trkpt><trkpt lat="40.787374439756505" lon="8.931689862854032"><ele>421.49999999999994</ele><time>2026-05-01T07:51:23.991Z</time></trkpt><trkpt lat="40.787348582215046" lon="8.931777121088148"><ele>421.0</ele><time>2026-05-01T07:51:24.991Z</time></trkpt><trkpt lat="40.78732641172184" lon="8.93186130712429"><ele>420.5</ele><time>2026-05-01T07:51:25.991Z</time></trkpt><trkpt lat="40.78731216370441" lon="8.931976022760292"><ele>420.0</ele><time>2026-05-01T07:51:27.991Z</time></trkpt><trkpt lat="40.7873711694473" lon="8.932022239218364"><ele>419.49999999999994</ele><time>2026-05-01T07:51:30.991Z</time></trkpt><trkpt lat="40.787455399753014" lon="8.93202804724825"><ele>419.0</ele><time>2026-05-01T07:51:32.991Z</time></trkpt><trkpt lat="40.787520889848345" lon="8.931945813971183"><ele>419.0</ele><time>2026-05-01T07:51:33.991Z</time></trkpt><trkpt lat="40.78759271388492" lon="8.93188325258528"><ele>419.0</ele><time>2026-05-01T07:51:34.991Z</time></trkpt><trkpt lat="40.78765563963921" lon="8.931773286518471"><ele>419.0</ele><time>2026-05-01T07:51:35.991Z</time></trkpt><trkpt lat="40.787703933739245" lon="8.931629559626648"><ele>419.0</ele><time>2026-05-01T07:51:36.991Z</time></trkpt><trkpt lat="40.78773648684361" lon="8.931499197000912"><ele>419.0</ele><time>2026-05-01T07:51:37.991Z</time></trkpt><trkpt lat="40.787762912182075" lon="8.931367253866675"><ele>416.0</ele><time>2026-05-01T07:51:38.991Z</time></trkpt><trkpt lat="40.787789381932214" lon="8.93123550473273"><ele>413.0</ele><time>2026-05-01T07:51:39.991Z</time></trkpt><trkpt lat="40.78782651605685" lon="8.93110156290051"><ele>410.0</ele><time>2026-05-01T07:51:40.991Z</time></trkpt><trkpt lat="40.78788386801546" lon="8.930967138590612"><ele>407.0</ele><time>2026-05-01T07:51:41.991Z</time></trkpt><trkpt lat="40.78795314172206" lon="8.930844556207855"><ele>404.0</ele><time>2026-05-01T07:51:42.991Z</time></trkpt><trkpt lat="40.78803053282368" lon="8.930734763361821"><ele>404.0</ele><time>2026-05-01T07:51:43.991Z</time></trkpt><trkpt lat="40.78811273115456" lon="8.930619926379505"><ele>404.0</ele><time>2026-05-01T07:51:44.991Z</time></trkpt><trkpt lat="40.78820032836213" lon="8.930526176322742"><ele>404.0</ele><time>2026-05-01T07:51:45.991Z</time></trkpt><trkpt lat="40.78828315260968" lon="8.930420461852723"><ele>404.0</ele><time>2026-05-01T07:51:46.991Z</time></trkpt><trkpt lat="40.78835537647504" lon="8.9303214600156"><ele>403.99999999999994</ele><time>2026-05-01T07:51:47.991Z</time></trkpt><trkpt lat="40.788410109282395" lon="8.930211128694204"><ele>404.0</ele><time>2026-05-01T07:51:48.991Z</time></trkpt><trkpt lat="40.78844282514637" lon="8.930098149498592"><ele>404.0</ele><time>2026-05-01T07:51:49.991Z</time></trkpt><trkpt lat="40.78846263881132" lon="8.929990819315522"><ele>404.0</ele><time>2026-05-01T07:51:50.991Z</time></trkpt><trkpt lat="40.78846039842439" lon="8.929889886491948"><ele>403.99999999999994</ele><time>2026-05-01T07:51:51.991Z</time></trkpt><trkpt lat="40.78843289885428" lon="8.929794533168272"><ele>404.0</ele><time>2026-05-01T07:51:52.991Z</time></trkpt><trkpt lat="40.78838873039349" lon="8.929698985370528"><ele>403.25</ele><time>2026-05-01T07:51:53.991Z</time></trkpt><trkpt lat="40.78831312933782" lon="8.929600972095018"><ele>402.5</ele><time>2026-05-01T07:51:54.991Z</time></trkpt><trkpt lat="40.78821535639553" lon="8.929521388827421"><ele>401.75</ele><time>2026-05-01T07:51:55.991Z</time></trkpt><trkpt lat="40.788110806226584" lon="8.929442724161149"><ele>401.0</ele><time>2026-05-01T07:51:56.991Z</time></trkpt><trkpt lat="40.78801279029245" lon="8.929368976163564"><ele>400.99999999999994</ele><time>2026-05-01T07:51:57.991Z</time></trkpt><trkpt lat="40.78792869323914" lon="8.929300593882266"><ele>401.0</ele><time>2026-05-01T07:51:58.991Z</time></trkpt><trkpt lat="40.787858313230714" lon="8.929243166183774"><ele>401.0</ele><time>2026-05-01T07:51:59.991Z</time></trkpt><trkpt lat="40.78782936793724" lon="8.929151271955009"><ele>401.0</ele><time>2026-05-01T07:52:00.991Z</time></trkpt><trkpt lat="40.78782780089064" lon="8.929053705870029"><ele>400.99999999999994</ele><time>2026-05-01T07:52:01.991Z</time></trkpt><trkpt lat="40.78784750080324" lon="8.928946582232385"><ele>401.0</ele><time>2026-05-01T07:52:02.991Z</time></trkpt><trkpt lat="40.78787641774358" lon="8.928817863820717"><ele>399.8</ele><time>2026-05-01T07:52:03.991Z</time></trkpt><trkpt lat="40.78789956760346" lon="8.92866445634027"><ele>398.6</ele><time>2026-05-01T07:52:04.991Z</time></trkpt><trkpt lat="40.78791346241261" lon="8.928515072080424"><ele>397.4</ele><time>2026-05-01T07:52:05.991Z</time></trkpt><trkpt lat="40.78792884919278" lon="8.928385166325775"><ele>396.2</ele><time>2026-05-01T07:52:06.991Z</time></trkpt><trkpt lat="40.78793156857622" lon="8.928277694301116"><ele>395.0</ele><time>2026-05-01T07:52:07.991Z</time></trkpt><trkpt lat="40.78793637703466" lon="8.92818517385345"><ele>393.66666666666663</ele><time>2026-05-01T07:52:09.991Z</time></trkpt><trkpt lat="40.787965289095844" lon="8.92809280340249"><ele>392.3333333333333</ele><time>2026-05-01T07:52:16.991Z</time></trkpt><trkpt lat="40.78797795149847" lon="8.928003283188382"><ele>391.0</ele><time>2026-05-01T07:52:17.991Z</time></trkpt><trkpt lat="40.78791736232643" lon="8.927890182904452"><ele>389.66666666666663</ele><time>2026-05-01T07:52:18.991Z</time></trkpt><trkpt lat="40.787931726157005" lon="8.927801823705641"><ele>388.3333333333333</ele><time>2026-05-01T07:52:19.991Z</time></trkpt><trkpt lat="40.78795500477396" lon="8.927695046368983"><ele>387.0</ele><time>2026-05-01T07:52:20.991Z</time></trkpt><trkpt lat="40.78799138474157" lon="8.927598468807517"><ele>386.8333333333333</ele><time>2026-05-01T07:52:21.991Z</time></trkpt><trkpt lat="40.78802112322005" lon="8.927501545309209"><ele>386.66666666666663</ele><time>2026-05-01T07:52:22.991Z</time></trkpt><trkpt lat="40.78809858907952" lon="8.927415459707357"><ele>386.5</ele><time>2026-05-01T07:52:24.991Z</time></trkpt><trkpt lat="40.78819413484542" lon="8.927426432622141"><ele>386.3333333333333</ele><time>2026-05-01T07:52:26.991Z</time></trkpt><trkpt lat="40.78825741339113" lon="8.927452187528397"><ele>386.16666666666663</ele><time>2026-05-01T07:52:27.991Z</time></trkpt><trkpt lat="40.78834162055663" lon="8.927508491848716"><ele>386.0</ele><time>2026-05-01T07:52:28.991Z</time></trkpt><trkpt lat="40.78842484184528" lon="8.92755147524161"><ele>385.20000000000005</ele><time>2026-05-01T07:52:29.991Z</time></trkpt><trkpt lat="40.78853421523194" lon="8.92759892489217"><ele>384.40000000000003</ele><time>2026-05-01T07:52:30.991Z</time></trkpt><trkpt lat="40.788628179863196" lon="8.927652800805019"><ele>383.6</ele><time>2026-05-01T07:52:31.991Z</time></trkpt><trkpt lat="40.7887334260449" lon="8.927699226884092"><ele>382.8</ele><time>2026-05-01T07:52:32.991Z</time></trkpt><trkpt lat="40.788838202927245" lon="8.927743475636198"><ele>382.0</ele><time>2026-05-01T07:52:33.991Z</time></trkpt><trkpt lat="40.78894328491028" lon="8.927785976491027"><ele>382.0</ele><time>2026-05-01T07:52:34.991Z</time></trkpt><trkpt lat="40.78904393135918" lon="8.927825396340804"><ele>382.0</ele><time>2026-05-01T07:52:35.991Z</time></trkpt><trkpt lat="40.78913625806772" lon="8.927852276107725"><ele>382.0</ele><time>2026-05-01T07:52:36.991Z</time></trkpt><trkpt lat="40.78923396101686" lon="8.927868665656552"><ele>382.0</ele><time>2026-05-01T07:52:37.991Z</time></trkpt><trkpt lat="40.78933275857182" lon="8.927867279599335"><ele>382.0</ele><time>2026-05-01T07:52:38.991Z</time></trkpt><trkpt lat="40.789424669528174" lon="8.927849015070697"><ele>382.3333333333333</ele><time>2026-05-01T07:52:39.991Z</time></trkpt><trkpt lat="40.789507444257104" lon="8.927825183961748"><ele>382.66666666666663</ele><time>2026-05-01T07:52:40.991Z</time></trkpt><trkpt lat="40.7895906380849" lon="8.927793768106557"><ele>383.0</ele><time>2026-05-01T07:52:41.991Z</time></trkpt><trkpt lat="40.78963856111988" lon="8.927725798546346"><ele>383.3333333333333</ele><time>2026-05-01T07:52:42.991Z</time></trkpt><trkpt lat="40.7896898990087" lon="8.927674671719322"><ele>383.6666666666667</ele><time>2026-05-01T07:52:43.991Z</time></trkpt><trkpt lat="40.7897537561036" lon="8.927517220860079"><ele>384.0</ele><time>2026-05-01T07:52:45.991Z</time></trkpt><trkpt lat="40.78979173700504" lon="8.927422291420072"><ele>382.1666666666667</ele><time>2026-05-01T07:52:46.991Z</time></trkpt><trkpt lat="40.78982091487253" lon="8.927319394613834"><ele>380.3333333333333</ele><time>2026-05-01T07:52:47.991Z</time></trkpt><trkpt lat="40.78986307147652" lon="8.927236203579946"><ele>378.5</ele><time>2026-05-01T07:52:48.991Z</time></trkpt><trkpt lat="40.78991845071752" lon="8.927176557475587"><ele>376.66666666666663</ele><time>2026-05-01T07:52:49.991Z</time></trkpt><trkpt lat="40.78999004319309" lon="8.92713365330392"><ele>374.8333333333333</ele><time>2026-05-01T07:52:50.991Z</time></trkpt><trkpt lat="40.790074524268" lon="8.927111652949002"><ele>373.0</ele><time>2026-05-01T07:52:51.991Z</time></trkpt><trkpt lat="40.79017439081223" lon="8.927085963114907"><ele>373.75</ele><time>2026-05-01T07:52:52.991Z</time></trkpt><trkpt lat="40.79027953026416" lon="8.927045792074415"><ele>374.5</ele><time>2026-05-01T07:52:53.991Z</time></trkpt><trkpt lat="40.79038729448235" lon="8.927016305631101"><ele>375.25</ele><time>2026-05-01T07:52:54.991Z</time></trkpt><trkpt lat="40.79050124426048" lon="8.926992150994026"><ele>376.0</ele><time>2026-05-01T07:52:55.991Z</time></trkpt><trkpt lat="40.79061102300719" lon="8.926947493852403"><ele>376.0</ele><time>2026-05-01T07:52:56.991Z</time></trkpt><trkpt lat="40.790723563839286" lon="8.926897554448493"><ele>376.0</ele><time>2026-05-01T07:52:57.991Z</time></trkpt><trkpt lat="40.7908224936012" lon="8.926863725948634"><ele>376.0</ele><time>2026-05-01T07:52:58.991Z</time></trkpt><trkpt lat="40.79091096512032" lon="8.92680446414902"><ele>376.0</ele><time>2026-05-01T07:52:59.991Z</time></trkpt><trkpt lat="40.79099001693582" lon="8.926732514747096"><ele>376.0</ele><time>2026-05-01T07:53:00.991Z</time></trkpt><trkpt lat="40.7910599657822" lon="8.926642491116139"><ele>376.5</ele><time>2026-05-01T07:53:01.991Z</time></trkpt><trkpt lat="40.7911294827711" lon="8.926544808347424"><ele>377.0</ele><time>2026-05-01T07:53:02.991Z</time></trkpt><trkpt lat="40.79120029285737" lon="8.926429831280076"><ele>377.5</ele><time>2026-05-01T07:53:03.991Z</time></trkpt><trkpt lat="40.791264827900754" lon="8.926286900857306"><ele>378.0</ele><time>2026-05-01T07:53:04.991Z</time></trkpt><trkpt lat="40.79132351123203" lon="8.92612723726672"><ele>378.0</ele><time>2026-05-01T07:53:05.991Z</time></trkpt><trkpt lat="40.79137872825568" lon="8.925955686460103"><ele>378.0</ele><time>2026-05-01T07:53:06.991Z</time></trkpt><trkpt lat="40.79142983079731" lon="8.925788891278977"><ele>378.0</ele><time>2026-05-01T07:53:07.991Z</time></trkpt><trkpt lat="40.791472854140196" lon="8.925622877235378"><ele>378.0</ele><time>2026-05-01T07:53:08.991Z</time></trkpt><trkpt lat="40.791521151161916" lon="8.925454519793103"><ele>375.0</ele><time>2026-05-01T07:53:09.991Z</time></trkpt><trkpt lat="40.79156090393803" lon="8.925292293592939"><ele>372.0</ele><time>2026-05-01T07:53:10.991Z</time></trkpt><trkpt lat="40.79159276789495" lon="8.925121114804089"><ele>369.0</ele><time>2026-05-01T07:53:11.99Z</time></trkpt><trkpt lat="40.79162069728461" lon="8.924945982104527"><ele>366.0</ele><time>2026-05-01T07:53:12.99Z</time></trkpt><trkpt lat="40.791642048872426" lon="8.924782071450904"><ele>363.6</ele><time>2026-05-01T07:53:13.99Z</time></trkpt><trkpt lat="40.7916572620903" lon="8.924624589989769"><ele>361.20000000000005</ele><time>2026-05-01T07:53:14.991Z</time></trkpt><trkpt lat="40.79165324361407" lon="8.92449389955541"><ele>358.79999999999995</ele><time>2026-05-01T07:53:15.991Z</time></trkpt><trkpt lat="40.79165171462219" lon="8.92440770690588"><ele>356.4</ele><time>2026-05-01T07:53:16.991Z</time></trkpt><trkpt lat="40.79157317936933" lon="8.924260691328717"><ele>354.0</ele><time>2026-05-01T07:53:18.99Z</time></trkpt><trkpt lat="40.79152081389602" lon="8.924188617748747"><ele>352.5</ele><time>2026-05-01T07:53:19.99Z</time></trkpt><trkpt lat="40.791445471999" lon="8.924140975799745"><ele>351.0</ele><time>2026-05-01T07:53:20.99Z</time></trkpt><trkpt lat="40.791402135288635" lon="8.924061645706756"><ele>349.5</ele><time>2026-05-01T07:53:21.99Z</time></trkpt><trkpt lat="40.7913722381478" lon="8.923974109060426"><ele>348.0</ele><time>2026-05-01T07:53:22.99Z</time></trkpt><trkpt lat="40.79137395652583" lon="8.923869609837253"><ele>346.5</ele><time>2026-05-01T07:53:23.99Z</time></trkpt><trkpt lat="40.79138389608355" lon="8.923745307845131"><ele>345.0</ele><time>2026-05-01T07:53:24.99Z</time></trkpt><trkpt lat="40.79142605017672" lon="8.923630185390332"><ele>345.0</ele><time>2026-05-01T07:53:25.99Z</time></trkpt><trkpt lat="40.791482669314725" lon="8.923531300430776"><ele>345.0</ele><time>2026-05-01T07:53:26.99Z</time></trkpt><trkpt lat="40.791560091222244" lon="8.923450276658864"><ele>345.0</ele><time>2026-05-01T07:53:27.99Z</time></trkpt><trkpt lat="40.79164896032417" lon="8.923386873476147"><ele>345.0</ele><time>2026-05-01T07:53:28.99Z</time></trkpt><trkpt lat="40.791748354772764" lon="8.923351000398814"><ele>345.0</ele><time>2026-05-01T07:53:29.99Z</time></trkpt><trkpt lat="40.79184829389146" lon="8.92332964301142"><ele>342.8</ele><time>2026-05-01T07:53:30.99Z</time></trkpt><trkpt lat="40.79194834323265" lon="8.923337323662663"><ele>340.6</ele><time>2026-05-01T07:53:31.99Z</time></trkpt><trkpt lat="40.79205591237078" lon="8.923362632873504"><ele>338.4</ele><time>2026-05-01T07:53:32.99Z</time></trkpt><trkpt lat="40.79216450339946" lon="8.923386683981924"><ele>336.2</ele><time>2026-05-01T07:53:33.99Z</time></trkpt><trkpt lat="40.79227138082529" lon="8.923396683181934"><ele>334.0</ele><time>2026-05-01T07:53:34.99Z</time></trkpt><trkpt lat="40.79236708762898" lon="8.923392100916445"><ele>334.0</ele><time>2026-05-01T07:53:35.99Z</time></trkpt><trkpt lat="40.792457098939984" lon="8.923365747049857"><ele>334.0</ele><time>2026-05-01T07:53:36.99Z</time></trkpt><trkpt lat="40.7925536783327" lon="8.92331436920915"><ele>334.0</ele><time>2026-05-01T07:53:37.99Z</time></trkpt><trkpt lat="40.79265028901815" lon="8.923251552683869"><ele>334.0</ele><time>2026-05-01T07:53:38.99Z</time></trkpt><trkpt lat="40.79275869828367" lon="8.923182102453792"><ele>334.0</ele><time>2026-05-01T07:53:39.99Z</time></trkpt><trkpt lat="40.79287167104457" lon="8.923131508920985"><ele>333.5</ele><time>2026-05-01T07:53:40.99Z</time></trkpt><trkpt lat="40.79299539043346" lon="8.923072302573877"><ele>333.0</ele><time>2026-05-01T07:53:41.99Z</time></trkpt><trkpt lat="40.79311669002167" lon="8.922984975141954"><ele>332.5</ele><time>2026-05-01T07:53:42.99Z</time></trkpt><trkpt lat="40.79325129305474" lon="8.92285195443575"><ele>332.0</ele><time>2026-05-01T07:53:43.991Z</time></trkpt><trkpt lat="40.79339144684657" lon="8.922690475945735"><ele>332.0</ele><time>2026-05-01T07:53:44.991Z</time></trkpt><trkpt lat="40.793449837268824" lon="8.922608038105581"><ele>332.0</ele><time>2026-05-01T07:53:46.991Z</time></trkpt><trkpt lat="40.79352791949102" lon="8.922465252181546"><ele>332.0</ele><time>2026-05-01T07:53:47.991Z</time></trkpt><trkpt lat="40.79360520004331" lon="8.922327900571736"><ele>332.0</ele><time>2026-05-01T07:53:48.991Z</time></trkpt><trkpt lat="40.79368152715518" lon="8.922191856985412"><ele>329.5</ele><time>2026-05-01T07:53:49.991Z</time></trkpt><trkpt lat="40.79375992560959" lon="8.92206339557477"><ele>327.0</ele><time>2026-05-01T07:53:50.991Z</time></trkpt><trkpt lat="40.793837528835375" lon="8.921932036694654"><ele>324.5</ele><time>2026-05-01T07:53:51.991Z</time></trkpt><trkpt lat="40.793913615047245" lon="8.921802127733047"><ele>322.0</ele><time>2026-05-01T07:53:52.991Z</time></trkpt><trkpt lat="40.79399137774051" lon="8.92169982819365"><ele>319.75</ele><time>2026-05-01T07:53:53.991Z</time></trkpt><trkpt lat="40.79408880265742" lon="8.921654385809527"><ele>317.5</ele><time>2026-05-01T07:53:54.991Z</time></trkpt><trkpt lat="40.79418932642317" lon="8.92159886539265"><ele>315.25</ele><time>2026-05-01T07:53:55.991Z</time></trkpt><trkpt lat="40.794296621129234" lon="8.921534350682208"><ele>313.0</ele><time>2026-05-01T07:53:56.991Z</time></trkpt><trkpt lat="40.79441446787674" lon="8.921455747958397"><ele>313.0</ele><time>2026-05-01T07:53:57.991Z</time></trkpt><trkpt lat="40.79453511102604" lon="8.921377358322443"><ele>313.0</ele><time>2026-05-01T07:53:58.991Z</time></trkpt><trkpt lat="40.79465255458482" lon="8.921297699926315"><ele>313.0</ele><time>2026-05-01T07:53:59.991Z</time></trkpt><trkpt lat="40.794766277825794" lon="8.921224932932317"><ele>313.0</ele><time>2026-05-01T07:54:00.991Z</time></trkpt><trkpt lat="40.79488572791333" lon="8.9211635437322"><ele>313.0</ele><time>2026-05-01T07:54:01.991Z</time></trkpt><trkpt lat="40.79501333658709" lon="8.921113422654381"><ele>313.0</ele><time>2026-05-01T07:54:02.991Z</time></trkpt><trkpt lat="40.79514293395887" lon="8.921075578930827"><ele>313.0</ele><time>2026-05-01T07:54:03.991Z</time></trkpt><trkpt lat="40.795260410960125" lon="8.921078060576074"><ele>313.0</ele><time>2026-05-01T07:54:04.991Z</time></trkpt><trkpt lat="40.79536535718298" lon="8.921086011957454"><ele>313.75</ele><time>2026-05-01T07:54:05.991Z</time></trkpt><trkpt lat="40.79546150805249" lon="8.921125893881305"><ele>314.5</ele><time>2026-05-01T07:54:06.991Z</time></trkpt><trkpt lat="40.79556771912855" lon="8.921178959282836"><ele>315.25</ele><time>2026-05-01T07:54:07.991Z</time></trkpt><trkpt lat="40.79568208449479" lon="8.921225117672396"><ele>316.0</ele><time>2026-05-01T07:54:08.991Z</time></trkpt><trkpt lat="40.795788879277325" lon="8.921286657532312"><ele>316.0</ele><time>2026-05-01T07:54:09.991Z</time></trkpt><trkpt lat="40.795896540498184" lon="8.921287421220688"><ele>316.0</ele><time>2026-05-01T07:54:10.991Z</time></trkpt><trkpt lat="40.79600144283075" lon="8.921252413350091"><ele>316.0</ele><time>2026-05-01T07:54:11.991Z</time></trkpt><trkpt lat="40.79610526258225" lon="8.921193485577106"><ele>316.0</ele><time>2026-05-01T07:54:12.991Z</time></trkpt><trkpt lat="40.79621107682959" lon="8.921126051752575"><ele>316.0</ele><time>2026-05-01T07:54:13.991Z</time></trkpt><trkpt lat="40.79632307738458" lon="8.921050278691572"><ele>318.25</ele><time>2026-05-01T07:54:14.991Z</time></trkpt><trkpt lat="40.79644247770879" lon="8.92099013703832"><ele>320.5</ele><time>2026-05-01T07:54:15.991Z</time></trkpt><trkpt lat="40.79656460707965" lon="8.920936951358213"><ele>322.75</ele><time>2026-05-01T07:54:16.991Z</time></trkpt><trkpt lat="40.7966891350449" lon="8.9208930816846"><ele>325.0</ele><time>2026-05-01T07:54:17.991Z</time></trkpt><trkpt lat="40.796814973007386" lon="8.920844204640538"><ele>320.25</ele><time>2026-05-01T07:54:18.991Z</time></trkpt><trkpt lat="40.79693422190137" lon="8.920799569996255"><ele>315.5</ele><time>2026-05-01T07:54:19.991Z</time></trkpt><trkpt lat="40.79704404429754" lon="8.920766809576191"><ele>310.75</ele><time>2026-05-01T07:54:20.991Z</time></trkpt><trkpt lat="40.7971517470714" lon="8.920749520770183"><ele>306.0</ele><time>2026-05-01T07:54:21.991Z</time></trkpt><trkpt lat="40.79726502047555" lon="8.920782205552895"><ele>306.0</ele><time>2026-05-01T07:54:22.991Z</time></trkpt><trkpt lat="40.7973837827876" lon="8.92077349570553"><ele>306.0</ele><time>2026-05-01T07:54:23.991Z</time></trkpt><trkpt lat="40.79749302204982" lon="8.92077471823716"><ele>306.0</ele><time>2026-05-01T07:54:24.991Z</time></trkpt><trkpt lat="40.79760291941814" lon="8.920744394801288"><ele>306.0</ele><time>2026-05-01T07:54:25.991Z</time></trkpt><trkpt lat="40.79772648197195" lon="8.920695136303276"><ele>305.5</ele><time>2026-05-01T07:54:26.991Z</time></trkpt><trkpt lat="40.79784889135118" lon="8.920632861112617"><ele>305.0</ele><time>2026-05-01T07:54:27.991Z</time></trkpt><trkpt lat="40.79795493289282" lon="8.920566647196546"><ele>304.5</ele><time>2026-05-01T07:54:28.991Z</time></trkpt><trkpt lat="40.79806240237343" lon="8.920498514874106"><ele>304.0</ele><time>2026-05-01T07:54:29.991Z</time></trkpt><trkpt lat="40.79817788503514" lon="8.920435153461034"><ele>304.0</ele><time>2026-05-01T07:54:30.991Z</time></trkpt><trkpt lat="40.79830242518553" lon="8.920374942887445"><ele>304.0</ele><time>2026-05-01T07:54:31.991Z</time></trkpt><trkpt lat="40.79843326366621" lon="8.92032317405292"><ele>304.0</ele><time>2026-05-01T07:54:32.991Z</time></trkpt><trkpt lat="40.79856809463544" lon="8.920265546892312"><ele>304.0</ele><time>2026-05-01T07:54:33.991Z</time></trkpt><trkpt lat="40.798687533536395" lon="8.92021944485882"><ele>302.25</ele><time>2026-05-01T07:54:34.991Z</time></trkpt><trkpt lat="40.79880321593639" lon="8.920167564121819"><ele>300.5</ele><time>2026-05-01T07:54:35.991Z</time></trkpt><trkpt lat="40.798924415678194" lon="8.920107835843453"><ele>298.75</ele><time>2026-05-01T07:54:36.991Z</time></trkpt><trkpt lat="40.79905046544387" lon="8.92003782410039"><ele>297.0</ele><time>2026-05-01T07:54:37.991Z</time></trkpt><trkpt lat="40.7991711594577" lon="8.919975503769763"><ele>296.25</ele><time>2026-05-01T07:54:38.991Z</time></trkpt><trkpt lat="40.79929528915633" lon="8.919917973658928"><ele>295.5</ele><time>2026-05-01T07:54:39.991Z</time></trkpt><trkpt lat="40.7994244880368" lon="8.91987400710027"><ele>294.75</ele><time>2026-05-01T07:54:40.991Z</time></trkpt><trkpt lat="40.7995491795679" lon="8.919843434778953"><ele>294.0</ele><time>2026-05-01T07:54:41.991Z</time></trkpt><trkpt lat="40.79966276073661" lon="8.91982813701865"><ele>293.0</ele><time>2026-05-01T07:54:42.991Z</time></trkpt><trkpt lat="40.799770216499496" lon="8.919831705394186"><ele>292.0</ele><time>2026-05-01T07:54:43.991Z</time></trkpt><trkpt lat="40.799869176475404" lon="8.91984861469422"><ele>291.0</ele><time>2026-05-01T07:54:44.991Z</time></trkpt><trkpt lat="40.799957973406144" lon="8.91989691776397"><ele>290.0</ele><time>2026-05-01T07:54:45.991Z</time></trkpt><trkpt lat="40.80001355596695" lon="8.920005700784658"><ele>289.0</ele><time>2026-05-01T07:54:46.991Z</time></trkpt><trkpt lat="40.80008150050399" lon="8.920090266972915"><ele>289.0</ele><time>2026-05-01T07:54:47.991Z</time></trkpt><trkpt lat="40.800133966641056" lon="8.920138124980696"><ele>289.0</ele><time>2026-05-01T07:54:48.991Z</time></trkpt><trkpt lat="40.80018826594742" lon="8.920243818185348"><ele>289.0</ele><time>2026-05-01T07:54:50.991Z</time></trkpt><trkpt lat="40.800140387819226" lon="8.92008205008751"><ele>289.0</ele><time>2026-05-01T07:55:01.991Z</time></trkpt><trkpt lat="40.80006022817863" lon="8.920019031545042"><ele>289.0</ele><time>2026-05-01T07:55:02.991Z</time></trkpt><trkpt lat="40.799981971570446" lon="8.919948801175284"><ele>289.0</ele><time>2026-05-01T07:55:03.991Z</time></trkpt><trkpt lat="40.79990866752455" lon="8.919869860344471"><ele>289.0</ele><time>2026-05-01T07:55:04.991Z</time></trkpt><trkpt lat="40.79984834245443" lon="8.919818777860035"><ele>289.0</ele><time>2026-05-01T07:55:05.991Z</time></trkpt><trkpt lat="40.79977368828736" lon="8.919740106819702"><ele>289.0</ele><time>2026-05-01T07:55:07.991Z</time></trkpt><trkpt lat="40.79970461797911" lon="8.919608650293583"><ele>289.0</ele><time>2026-05-01T07:55:09.991Z</time></trkpt><trkpt lat="40.79965290323934" lon="8.919554672631154"><ele>289.0</ele><time>2026-05-01T07:55:10.991Z</time></trkpt><trkpt lat="40.79959146183618" lon="8.919492941021987"><ele>289.0</ele><time>2026-05-01T07:55:11.991Z</time></trkpt><trkpt lat="40.7995259974827" lon="8.919427937061766"><ele>289.0</ele><time>2026-05-01T07:55:12.991Z</time></trkpt><trkpt lat="40.79946689063034" lon="8.919369246353687"><ele>289.0</ele><time>2026-05-01T07:55:13.991Z</time></trkpt><trkpt lat="40.799396641512146" lon="8.919286514293974"><ele>289.0</ele><time>2026-05-01T07:55:15.991Z</time></trkpt><trkpt lat="40.79941392883122" lon="8.919169627055787"><ele>289.0</ele><time>2026-05-01T07:55:17.99Z</time></trkpt><trkpt lat="40.79947343203431" lon="8.91905494267127"><ele>289.0</ele><time>2026-05-01T07:55:19.99Z</time></trkpt><trkpt lat="40.79951999438836" lon="8.918984949675798"><ele>289.4</ele><time>2026-05-01T07:55:20.989Z</time></trkpt><trkpt lat="40.79958075737334" lon="8.918857448455652"><ele>289.79999999999995</ele><time>2026-05-01T07:55:22.99Z</time></trkpt><trkpt lat="40.799623159214086" lon="8.91872389692775"><ele>290.20000000000005</ele><time>2026-05-01T07:55:24.989Z</time></trkpt><trkpt lat="40.79966495942447" lon="8.91860059995885"><ele>290.6</ele><time>2026-05-01T07:55:26.989Z</time></trkpt><trkpt lat="40.7997030093966" lon="8.91848359324473"><ele>291.0</ele><time>2026-05-01T07:55:28.989Z</time></trkpt><trkpt lat="40.799760144053714" lon="8.918356204157856"><ele>289.6</ele><time>2026-05-01T07:55:30.989Z</time></trkpt><trkpt lat="40.79982969888677" lon="8.918256343424343"><ele>288.20000000000005</ele><time>2026-05-01T07:55:32.989Z</time></trkpt><trkpt lat="40.79989583564393" lon="8.918152803976605"><ele>286.79999999999995</ele><time>2026-05-01T07:55:34.989Z</time></trkpt><trkpt lat="40.79996830693525" lon="8.918053841599594"><ele>285.4</ele><time>2026-05-01T07:55:36.989Z</time></trkpt><trkpt lat="40.800048450481356" lon="8.917969546823691"><ele>284.0</ele><time>2026-05-01T07:55:38.989Z</time></trkpt><trkpt lat="40.80011981171164" lon="8.917886654049505"><ele>282.83333333333337</ele><time>2026-05-01T07:55:40.989Z</time></trkpt><trkpt lat="40.8001897298558" lon="8.917786681254233"><ele>281.6666666666667</ele><time>2026-05-01T07:55:42.989Z</time></trkpt><trkpt lat="40.800233055288544" lon="8.917687002518814"><ele>280.5</ele><time>2026-05-01T07:55:44.989Z</time></trkpt><trkpt lat="40.800233318076046" lon="8.917602910503433"><ele>279.3333333333333</ele><time>2026-05-01T07:55:46.989Z</time></trkpt><trkpt lat="40.8002328608188" lon="8.91749200116097"><ele>278.16666666666663</ele><time>2026-05-01T07:55:48.989Z</time></trkpt><trkpt lat="40.80022656768541" lon="8.917374668193862"><ele>277.0</ele><time>2026-05-01T07:55:50.989Z</time></trkpt><trkpt lat="40.80020812544344" lon="8.91727863202129"><ele>275.0</ele><time>2026-05-01T07:55:52.989Z</time></trkpt><trkpt lat="40.80018746583806" lon="8.917156694734164"><ele>273.0</ele><time>2026-05-01T07:55:54.989Z</time></trkpt><trkpt lat="40.800186101473685" lon="8.916996426634135"><ele>271.0</ele><time>2026-05-01T07:55:56.989Z</time></trkpt><trkpt lat="40.80022762902774" lon="8.916872011775594"><ele>269.0</ele><time>2026-05-01T07:55:58.989Z</time></trkpt><trkpt lat="40.80030310897195" lon="8.916794215598351"><ele>267.0</ele><time>2026-05-01T07:56:00.989Z</time></trkpt><trkpt lat="40.80035781828288" lon="8.91670520117539"><ele>265.3333333333333</ele><time>2026-05-01T07:56:02.989Z</time></trkpt><trkpt lat="40.80042062858967" lon="8.916619925729876"><ele>263.6666666666667</ele><time>2026-05-01T07:56:04.989Z</time></trkpt><trkpt lat="40.80047120335842" lon="8.916535453692438"><ele>262.0</ele><time>2026-05-01T07:56:06.989Z</time></trkpt><trkpt lat="40.80050072195982" lon="8.916427898788836"><ele>260.33333333333337</ele><time>2026-05-01T07:56:08.989Z</time></trkpt><trkpt lat="40.80051758030044" lon="8.916335328972766"><ele>258.6666666666667</ele><time>2026-05-01T07:56:10.989Z</time></trkpt><trkpt lat="40.80051913888176" lon="8.916239711346165"><ele>257.0</ele><time>2026-05-01T07:56:12.989Z</time></trkpt><trkpt lat="40.800523692446774" lon="8.916125669400666"><ele>257.0</ele><time>2026-05-01T07:56:14.989Z</time></trkpt><trkpt lat="40.800533649848425" lon="8.916011988128785"><ele>257.0</ele><time>2026-05-01T07:56:16.989Z</time></trkpt><trkpt lat="40.80054288875295" lon="8.915897280752642"><ele>257.0</ele><time>2026-05-01T07:56:18.989Z</time></trkpt><trkpt lat="40.80055023952247" lon="8.915786302934402"><ele>257.0</ele><time>2026-05-01T07:56:20.989Z</time></trkpt><trkpt lat="40.800568203417306" lon="8.915681265482311"><ele>257.0</ele><time>2026-05-01T07:56:22.989Z</time></trkpt><trkpt lat="40.80064006900281" lon="8.915571343204647"><ele>255.83333333333334</ele><time>2026-05-01T07:56:24.989Z</time></trkpt><trkpt lat="40.80070851116225" lon="8.915484876128168"><ele>254.66666666666669</ele><time>2026-05-01T07:56:26.989Z</time></trkpt><trkpt lat="40.80078085635683" lon="8.91539488898579"><ele>253.5</ele><time>2026-05-01T07:56:28.989Z</time></trkpt><trkpt lat="40.80082649599165" lon="8.915335554652483"><ele>252.33333333333331</ele><time>2026-05-01T07:56:30.989Z</time></trkpt><trkpt lat="40.8008796798896" lon="8.91526641233821"><ele>251.16666666666666</ele><time>2026-05-01T07:56:32.989Z</time></trkpt><trkpt lat="40.80093964778758" lon="8.915188450406383"><ele>250.0</ele><time>2026-05-01T07:56:34.989Z</time></trkpt><trkpt lat="40.80101483540262" lon="8.915099673658913"><ele>247.49999999999997</ele><time>2026-05-01T07:56:36.989Z</time></trkpt><trkpt lat="40.801087683797306" lon="8.915002378439343"><ele>245.0</ele><time>2026-05-01T07:56:38.989Z</time></trkpt><trkpt lat="40.801132534831815" lon="8.914917153439783"><ele>242.5</ele><time>2026-05-01T07:56:40.989Z</time></trkpt><trkpt lat="40.80118356610552" lon="8.914841621205213"><ele>240.0</ele><time>2026-05-01T07:56:42.989Z</time></trkpt><trkpt lat="40.80119331249754" lon="8.914730877281633"><ele>237.49999999999997</ele><time>2026-05-01T07:56:44.989Z</time></trkpt><trkpt lat="40.801206562581925" lon="8.914599867189713"><ele>235.0</ele><time>2026-05-01T07:56:46.989Z</time></trkpt><trkpt lat="40.80123289363519" lon="8.914520243067074"><ele>235.0</ele><time>2026-05-01T07:56:47.989Z</time></trkpt><trkpt lat="40.801238021621465" lon="8.914414093506869"><ele>234.99999999999997</ele><time>2026-05-01T07:56:48.989Z</time></trkpt><trkpt lat="40.80126723131335" lon="8.914320910155705"><ele>235.0</ele><time>2026-05-01T07:56:49.989Z</time></trkpt><trkpt lat="40.80130769323173" lon="8.914236411523799"><ele>235.0</ele><time>2026-05-01T07:56:50.989Z</time></trkpt><trkpt lat="40.80134398958737" lon="8.91416307241011"><ele>234.99999999999997</ele><time>2026-05-01T07:56:51.989Z</time></trkpt><trkpt lat="40.80138762829079" lon="8.914091073406297"><ele>235.0</ele><time>2026-05-01T07:56:52.989Z</time></trkpt><trkpt lat="40.80142293810751" lon="8.914017902941751"><ele>235.0</ele><time>2026-05-01T07:56:53.989Z</time></trkpt><trkpt lat="40.801460805226654" lon="8.913949393288132"><ele>234.2</ele><time>2026-05-01T07:56:54.989Z</time></trkpt><trkpt lat="40.80150284752646" lon="8.913806978305725"><ele>233.4</ele><time>2026-05-01T07:56:56.989Z</time></trkpt><trkpt lat="40.80154785400207" lon="8.913688486518735"><ele>232.60000000000002</ele><time>2026-05-01T07:56:58.989Z</time></trkpt><trkpt lat="40.801576283508005" lon="8.913608781669842"><ele>231.8</ele><time>2026-05-01T07:56:59.989Z</time></trkpt><trkpt lat="40.80161766903487" lon="8.913474375942961"><ele>231.0</ele><time>2026-05-01T07:57:01.989Z</time></trkpt><trkpt lat="40.80165247005269" lon="8.913330046668698"><ele>229.60000000000002</ele><time>2026-05-01T07:57:03.989Z</time></trkpt><trkpt lat="40.8016926841721" lon="8.913210127136749"><ele>228.20000000000002</ele><time>2026-05-01T07:57:05.99Z</time></trkpt><trkpt lat="40.80173776038336" lon="8.913066170369651"><ele>226.79999999999998</ele><time>2026-05-01T07:57:07.99Z</time></trkpt><trkpt lat="40.80177483863625" lon="8.912994553376187"><ele>225.39999999999998</ele><time>2026-05-01T07:57:08.99Z</time></trkpt><trkpt lat="40.80185514908848" lon="8.912897925882968"><ele>224.0</ele><time>2026-05-01T07:57:10.99Z</time></trkpt><trkpt lat="40.80192510194376" lon="8.912773335557677"><ele>223.2</ele><time>2026-05-01T07:57:12.99Z</time></trkpt><trkpt lat="40.80195536744098" lon="8.912697508198452"><ele>222.39999999999998</ele><time>2026-05-01T07:57:13.99Z</time></trkpt><trkpt lat="40.80199115812705" lon="8.912626738560599"><ele>221.6</ele><time>2026-05-01T07:57:14.99Z</time></trkpt><trkpt lat="40.80206248628625" lon="8.912495762537402"><ele>220.8</ele><time>2026-05-01T07:57:16.99Z</time></trkpt><trkpt lat="40.8021446616675" lon="8.912394878358926"><ele>220.0</ele><time>2026-05-01T07:57:18.99Z</time></trkpt><trkpt lat="40.80221806197433" lon="8.912286615374635"><ele>219.0</ele><time>2026-05-01T07:57:20.99Z</time></trkpt><trkpt lat="40.80230451979463" lon="8.912174666140752"><ele>218.0</ele><time>2026-05-01T07:57:22.989Z</time></trkpt><trkpt lat="40.80238458039915" lon="8.912082109362919"><ele>217.0</ele><time>2026-05-01T07:57:24.989Z</time></trkpt><trkpt lat="40.80243191634717" lon="8.911972896677135"><ele>216.0</ele><time>2026-05-01T07:57:26.989Z</time></trkpt><trkpt lat="40.802504266483616" lon="8.911853597362619"><ele>215.0</ele><time>2026-05-01T07:57:28.989Z</time></trkpt><trkpt lat="40.80253826295113" lon="8.911760979474717"><ele>214.00000000000003</ele><time>2026-05-01T07:57:29.989Z</time></trkpt><trkpt lat="40.80256746943767" lon="8.911681318418998"><ele>213.0</ele><time>2026-05-01T07:57:30.989Z</time></trkpt><trkpt lat="40.8025869234762" lon="8.911593769783282"><ele>212.0</ele><time>2026-05-01T07:57:31.989Z</time></trkpt><trkpt lat="40.802639109172105" lon="8.911452534509717"><ele>211.0</ele><time>2026-05-01T07:57:33.989Z</time></trkpt><trkpt lat="40.80268335168452" lon="8.911390837908483"><ele>210.00000000000003</ele><time>2026-05-01T07:57:34.989Z</time></trkpt><trkpt lat="40.80275027427897" lon="8.911245396635115"><ele>209.0</ele><time>2026-05-01T07:57:36.988Z</time></trkpt><trkpt lat="40.8027860902508" lon="8.911172070257534"><ele>208.33333333333334</ele><time>2026-05-01T07:57:37.988Z</time></trkpt><trkpt lat="40.80283501243251" lon="8.911070281947904"><ele>207.66666666666669</ele><time>2026-05-01T07:57:39.988Z</time></trkpt><trkpt lat="40.80286500321639" lon="8.91096292770248"><ele>207.0</ele><time>2026-05-01T07:57:41.988Z</time></trkpt><trkpt lat="40.80290180796457" lon="8.910871831627878"><ele>206.33333333333331</ele><time>2026-05-01T07:57:44.988Z</time></trkpt><trkpt lat="40.80293658450212" lon="8.910782156351498"><ele>205.66666666666666</ele><time>2026-05-01T07:57:47.988Z</time></trkpt><trkpt lat="40.80298485854005" lon="8.910655391021667"><ele>205.0</ele><time>2026-05-01T07:57:50.988Z</time></trkpt><trkpt lat="40.80302599600756" lon="8.910581151610842"><ele>204.16666666666666</ele><time>2026-05-01T07:57:52.988Z</time></trkpt><trkpt lat="40.80307042288682" lon="8.910502051138721"><ele>203.33333333333331</ele><time>2026-05-01T07:57:54.988Z</time></trkpt><trkpt lat="40.80312052225224" lon="8.910425092876457"><ele>202.5</ele><time>2026-05-01T07:57:56.988Z</time></trkpt><trkpt lat="40.803172548562735" lon="8.910345716923873"><ele>201.66666666666669</ele><time>2026-05-01T07:57:58.988Z</time></trkpt><trkpt lat="40.80322460511653" lon="8.910269440908179"><ele>200.83333333333334</ele><time>2026-05-01T07:58:00.988Z</time></trkpt><trkpt lat="40.80329827059028" lon="8.910202665014767"><ele>200.0</ele><time>2026-05-01T07:58:02.988Z</time></trkpt><trkpt lat="40.803349151327744" lon="8.910127675281371"><ele>198.6</ele><time>2026-05-01T07:58:04.988Z</time></trkpt><trkpt lat="40.80340938723555" lon="8.910054039160988"><ele>197.2</ele><time>2026-05-01T07:58:06.988Z</time></trkpt><trkpt lat="40.80347838836528" lon="8.909981457415702"><ele>195.8</ele><time>2026-05-01T07:58:08.988Z</time></trkpt><trkpt lat="40.803565972502625" lon="8.909912453918079"><ele>194.4</ele><time>2026-05-01T07:58:10.988Z</time></trkpt><trkpt lat="40.80367044481538" lon="8.909863340392848"><ele>193.0</ele><time>2026-05-01T07:58:12.988Z</time></trkpt><trkpt lat="40.8037724636317" lon="8.909812300571916"><ele>192.33333333333331</ele><time>2026-05-01T07:58:14.988Z</time></trkpt><trkpt lat="40.80389219082042" lon="8.90974276910958"><ele>191.66666666666666</ele><time>2026-05-01T07:58:16.988Z</time></trkpt><trkpt lat="40.80395548847331" lon="8.909721825499714"><ele>191.0</ele><time>2026-05-01T07:58:17.988Z</time></trkpt><trkpt lat="40.80402215861839" lon="8.909703389702209"><ele>190.33333333333331</ele><time>2026-05-01T07:58:18.988Z</time></trkpt><trkpt lat="40.804092006524236" lon="8.909679266473173"><ele>189.66666666666666</ele><time>2026-05-01T07:58:19.988Z</time></trkpt><trkpt lat="40.80416167625287" lon="8.909656286596265"><ele>189.0</ele><time>2026-05-01T07:58:20.988Z</time></trkpt><trkpt lat="40.8042288651159" lon="8.909641663529964"><ele>188.2</ele><time>2026-05-01T07:58:21.988Z</time></trkpt><trkpt lat="40.804366306303095" lon="8.909642395670883"><ele>187.39999999999998</ele><time>2026-05-01T07:58:23.989Z</time></trkpt><trkpt lat="40.80444582537103" lon="8.909657719025523"><ele>186.6</ele><time>2026-05-01T07:58:24.989Z</time></trkpt><trkpt lat="40.80452406576532" lon="8.909674683442962"><ele>185.8</ele><time>2026-05-01T07:58:25.989Z</time></trkpt><trkpt lat="40.80462423274945" lon="8.909682027130243"><ele>185.0</ele><time>2026-05-01T07:58:26.989Z</time></trkpt><trkpt lat="40.80472097575139" lon="8.909691567235022"><ele>185.0</ele><time>2026-05-01T07:58:27.989Z</time></trkpt><trkpt lat="40.80481444694501" lon="8.909686948657408"><ele>185.0</ele><time>2026-05-01T07:58:28.989Z</time></trkpt><trkpt lat="40.80489319129117" lon="8.909690092878042"><ele>185.0</ele><time>2026-05-01T07:58:29.989Z</time></trkpt><trkpt lat="40.804996294980945" lon="8.909682175501256"><ele>185.0</ele><time>2026-05-01T07:58:31.989Z</time></trkpt><trkpt lat="40.805073306374524" lon="8.909675357820307"><ele>185.0</ele><time>2026-05-01T07:58:33.989Z</time></trkpt><trkpt lat="40.80511740439209" lon="8.909556124220638"><ele>185.0</ele><time>2026-05-01T07:58:36.989Z</time></trkpt><trkpt lat="40.80513387995902" lon="8.909459226815853"><ele>185.0</ele><time>2026-05-01T07:59:23.989Z</time></trkpt><trkpt lat="40.805160519513855" lon="8.90936655945833"><ele>185.0</ele><time>2026-05-01T07:59:25.989Z</time></trkpt><trkpt lat="40.805219270340736" lon="8.909232762560716"><ele>185.0</ele><time>2026-05-01T07:59:27.989Z</time></trkpt><trkpt lat="40.805250163568225" lon="8.909114847322972"><ele>185.0</ele><time>2026-05-01T07:59:29.988Z</time></trkpt><trkpt lat="40.805305790442524" lon="8.908985018714597"><ele>182.8</ele><time>2026-05-01T07:59:31.988Z</time></trkpt><trkpt lat="40.80533536951961" lon="8.908849835316772"><ele>180.6</ele><time>2026-05-01T07:59:33.988Z</time></trkpt><trkpt lat="40.80534998159293" lon="8.908677909235378"><ele>178.39999999999998</ele><time>2026-05-01T07:59:35.988Z</time></trkpt><trkpt lat="40.805366800274015" lon="8.908575795606197"><ele>176.2</ele><time>2026-05-01T07:59:36.988Z</time></trkpt><trkpt lat="40.80538674959308" lon="8.908460747708443"><ele>174.0</ele><time>2026-05-01T07:59:37.988Z</time></trkpt><trkpt lat="40.805406465881624" lon="8.908346482179198"><ele>172.83333333333334</ele><time>2026-05-01T07:59:38.988Z</time></trkpt><trkpt lat="40.805425735774094" lon="8.90823574120803"><ele>171.66666666666666</ele><time>2026-05-01T07:59:39.989Z</time></trkpt><trkpt lat="40.805446550266474" lon="8.908120653970242"><ele>170.5</ele><time>2026-05-01T07:59:40.988Z</time></trkpt><trkpt lat="40.805470345031296" lon="8.90800558071239"><ele>169.33333333333331</ele><time>2026-05-01T07:59:41.988Z</time></trkpt><trkpt lat="40.805487836771675" lon="8.907902580108024"><ele>168.16666666666666</ele><time>2026-05-01T07:59:42.988Z</time></trkpt><trkpt lat="40.805487763638766" lon="8.907800663161657"><ele>167.0</ele><time>2026-05-01T07:59:43.988Z</time></trkpt><trkpt lat="40.80547700168924" lon="8.907716379014667"><ele>167.0</ele><time>2026-05-01T07:59:44.988Z</time></trkpt><trkpt lat="40.805433536949124" lon="8.907621980309996"><ele>167.0</ele><time>2026-05-01T07:59:46.988Z</time></trkpt><trkpt lat="40.80533215840474" lon="8.907521882698004"><ele>167.0</ele><time>2026-05-01T07:59:48.988Z</time></trkpt><trkpt lat="40.8052945645644" lon="8.907397207118999"><ele>167.0</ele><time>2026-05-01T07:59:50.988Z</time></trkpt><trkpt lat="40.805318733239154" lon="8.907244417764566"><ele>167.0</ele><time>2026-05-01T07:59:52.988Z</time></trkpt><trkpt lat="40.80529324000749" lon="8.907083280073786"><ele>165.6</ele><time>2026-05-01T07:59:54.988Z</time></trkpt><trkpt lat="40.8052753045437" lon="8.90695976882679"><ele>164.2</ele><time>2026-05-01T07:59:56.988Z</time></trkpt><trkpt lat="40.80527903499455" lon="8.906854921823033"><ele>162.8</ele><time>2026-05-01T07:59:58.988Z</time></trkpt><trkpt lat="40.805293841708" lon="8.90677220420932"><ele>161.4</ele><time>2026-05-01T08:00:00.988Z</time></trkpt><trkpt lat="40.80534229877597" lon="8.90669261862433"><ele>160.0</ele><time>2026-05-01T08:00:02.988Z</time></trkpt><trkpt lat="40.80545360489542" lon="8.906574558693006"><ele>158.5</ele><time>2026-05-01T08:00:04.988Z</time></trkpt><trkpt lat="40.805501136962924" lon="8.906489441114454"><ele>157.0</ele><time>2026-05-01T08:00:05.988Z</time></trkpt><trkpt lat="40.80554305445493" lon="8.906393257392834"><ele>155.5</ele><time>2026-05-01T08:00:06.988Z</time></trkpt><trkpt lat="40.80557381908642" lon="8.906299319856386"><ele>154.0</ele><time>2026-05-01T08:00:07.988Z</time></trkpt><trkpt lat="40.80560135228619" lon="8.906209928855901"><ele>152.5</ele><time>2026-05-01T08:00:08.988Z</time></trkpt><trkpt lat="40.80563075030507" lon="8.906128899108962"><ele>151.0</ele><time>2026-05-01T08:00:09.988Z</time></trkpt><trkpt lat="40.80567388381421" lon="8.9059950873795"><ele>149.33333333333334</ele><time>2026-05-01T08:00:11.988Z</time></trkpt><trkpt lat="40.80571907878263" lon="8.905881988987261"><ele>147.66666666666669</ele><time>2026-05-01T08:00:13.988Z</time></trkpt><trkpt lat="40.80577929485652" lon="8.905825332236121"><ele>146.0</ele><time>2026-05-01T08:00:15.988Z</time></trkpt><trkpt lat="40.80582369446844" lon="8.90576330699007"><ele>144.33333333333334</ele><time>2026-05-01T08:00:16.988Z</time></trkpt><trkpt lat="40.805871354106465" lon="8.905623969570831"><ele>142.66666666666666</ele><time>2026-05-01T08:00:18.988Z</time></trkpt><trkpt lat="40.805897374464514" lon="8.90552902929365"><ele>141.0</ele><time>2026-05-01T08:00:19.988Z</time></trkpt><trkpt lat="40.805927401425514" lon="8.90540882069962"><ele>141.0</ele><time>2026-05-01T08:00:20.988Z</time></trkpt><trkpt lat="40.8059644116964" lon="8.905270970488747"><ele>141.0</ele><time>2026-05-01T08:00:21.988Z</time></trkpt><trkpt lat="40.80599384310339" lon="8.905151972506214"><ele>141.0</ele><time>2026-05-01T08:00:22.988Z</time></trkpt><trkpt lat="40.80601624839228" lon="8.90504345329063"><ele>141.0</ele><time>2026-05-01T08:00:23.988Z</time></trkpt><trkpt lat="40.806035638440754" lon="8.90493707863598"><ele>141.0</ele><time>2026-05-01T08:00:24.988Z</time></trkpt><trkpt lat="40.806074926429545" lon="8.904840562161256"><ele>138.25</ele><time>2026-05-01T08:00:25.988Z</time></trkpt><trkpt lat="40.806138810145754" lon="8.904724698295912"><ele>135.5</ele><time>2026-05-01T08:00:26.988Z</time></trkpt><trkpt lat="40.80620855223795" lon="8.904597527494515"><ele>132.75</ele><time>2026-05-01T08:00:27.988Z</time></trkpt><trkpt lat="40.806286909571384" lon="8.904486844577994"><ele>130.0</ele><time>2026-05-01T08:00:28.988Z</time></trkpt><trkpt lat="40.806359142588086" lon="8.904379017779004"><ele>130.0</ele><time>2026-05-01T08:00:29.988Z</time></trkpt><trkpt lat="40.80641229979796" lon="8.904266511446314"><ele>130.0</ele><time>2026-05-01T08:00:30.988Z</time></trkpt><trkpt lat="40.8064644511986" lon="8.904150120923864"><ele>130.0</ele><time>2026-05-01T08:00:31.988Z</time></trkpt><trkpt lat="40.80652590125898" lon="8.904034604903327"><ele>130.0</ele><time>2026-05-01T08:00:32.988Z</time></trkpt><trkpt lat="40.8065974105499" lon="8.903909807103368"><ele>130.0</ele><time>2026-05-01T08:00:33.988Z</time></trkpt><trkpt lat="40.80665818980586" lon="8.903771584024998"><ele>128.5</ele><time>2026-05-01T08:00:34.988Z</time></trkpt><trkpt lat="40.80671759895671" lon="8.903634481434334"><ele>127.0</ele><time>2026-05-01T08:00:35.988Z</time></trkpt><trkpt lat="40.80678624486029" lon="8.903510924380509"><ele>125.5</ele><time>2026-05-01T08:00:36.988Z</time></trkpt><trkpt lat="40.806864946019914" lon="8.903391828378831"><ele>124.0</ele><time>2026-05-01T08:00:37.988Z</time></trkpt><trkpt lat="40.80694107235251" lon="8.90326435396645"><ele>121.80000000000001</ele><time>2026-05-01T08:00:38.988Z</time></trkpt><trkpt lat="40.80700506346813" lon="8.903144662183582"><ele>119.60000000000001</ele><time>2026-05-01T08:00:39.988Z</time></trkpt><trkpt lat="40.80706109470665" lon="8.90303176480075"><ele>117.4</ele><time>2026-05-01T08:00:40.988Z</time></trkpt><trkpt lat="40.8071156901938" lon="8.902936344004802"><ele>115.2</ele><time>2026-05-01T08:00:41.988Z</time></trkpt><trkpt lat="40.80718378554874" lon="8.902863943448862"><ele>113.0</ele><time>2026-05-01T08:00:42.988Z</time></trkpt><trkpt lat="40.80726918400585" lon="8.90280382017462"><ele>113.0</ele><time>2026-05-01T08:00:43.988Z</time></trkpt><trkpt lat="40.80736350554128" lon="8.902756936122424"><ele>113.00000000000001</ele><time>2026-05-01T08:00:44.988Z</time></trkpt><trkpt lat="40.80747229699437" lon="8.902700378091263"><ele>113.00000000000001</ele><time>2026-05-01T08:00:45.988Z</time></trkpt><trkpt lat="40.80757355880065" lon="8.902624745393672"><ele>113.0</ele><time>2026-05-01T08:00:46.988Z</time></trkpt><trkpt lat="40.807671821179945" lon="8.90256070655359"><ele>113.0</ele><time>2026-05-01T08:00:47.988Z</time></trkpt><trkpt lat="40.80776000110657" lon="8.902492159820502"><ele>111.80000000000001</ele><time>2026-05-01T08:00:48.988Z</time></trkpt><trkpt lat="40.80784119746408" lon="8.902400750758416"><ele>110.60000000000001</ele><time>2026-05-01T08:00:49.988Z</time></trkpt><trkpt lat="40.80790861223328" lon="8.90231640403305"><ele>109.39999999999999</ele><time>2026-05-01T08:00:50.988Z</time></trkpt><trkpt lat="40.80797267847429" lon="8.90223188210612"><ele>108.19999999999999</ele><time>2026-05-01T08:00:51.988Z</time></trkpt><trkpt lat="40.80802878990123" lon="8.90215181380158"><ele>107.0</ele><time>2026-05-01T08:00:52.988Z</time></trkpt><trkpt lat="40.8080757449618" lon="8.902057895985752"><ele>106.99999999999999</ele><time>2026-05-01T08:00:53.988Z</time></trkpt><trkpt lat="40.80811950980692" lon="8.901950621660779"><ele>107.0</ele><time>2026-05-01T08:00:54.988Z</time></trkpt><trkpt lat="40.80815751288169" lon="8.90184430583215"><ele>107.0</ele><time>2026-05-01T08:00:55.988Z</time></trkpt><trkpt lat="40.80818752405005" lon="8.901739367945458"><ele>107.0</ele><time>2026-05-01T08:00:56.988Z</time></trkpt><trkpt lat="40.808214951665796" lon="8.901639697222143"><ele>106.99999999999999</ele><time>2026-05-01T08:00:57.988Z</time></trkpt><trkpt lat="40.80824615217589" lon="8.901528123815243"><ele>107.0</ele><time>2026-05-01T08:00:58.988Z</time></trkpt><trkpt lat="40.80827931878092" lon="8.901439719969071"><ele>106.8</ele><time>2026-05-01T08:00:59.988Z</time></trkpt><trkpt lat="40.80830897221666" lon="8.901363867779814"><ele>106.6</ele><time>2026-05-01T08:01:00.988Z</time></trkpt><trkpt lat="40.80838858448604" lon="8.901277975596873"><ele>106.39999999999999</ele><time>2026-05-01T08:01:02.988Z</time></trkpt><trkpt lat="40.80850950604905" lon="8.901250644883309"><ele>106.19999999999999</ele><time>2026-05-01T08:01:04.988Z</time></trkpt><trkpt lat="40.80858624379268" lon="8.901247949204913"><ele>106.0</ele><time>2026-05-01T08:01:05.988Z</time></trkpt><trkpt lat="40.80868008686193" lon="8.901251545707087"><ele>106.4</ele><time>2026-05-01T08:01:06.988Z</time></trkpt><trkpt lat="40.80877757652926" lon="8.901266823631959"><ele>106.8</ele><time>2026-05-01T08:01:07.988Z</time></trkpt><trkpt lat="40.80887966062302" lon="8.901282124792912"><ele>107.20000000000002</ele><time>2026-05-01T08:01:08.988Z</time></trkpt><trkpt lat="40.80897452164991" lon="8.901301369721038"><ele>107.60000000000001</ele><time>2026-05-01T08:01:09.988Z</time></trkpt><trkpt lat="40.80906127755106" lon="8.901317326843154"><ele>108.0</ele><time>2026-05-01T08:01:10.988Z</time></trkpt><trkpt lat="40.80913409486104" lon="8.90131777810182"><ele>108.0</ele><time>2026-05-01T08:01:11.988Z</time></trkpt><trkpt lat="40.80922785461881" lon="8.901282693060189"><ele>108.00000000000001</ele><time>2026-05-01T08:01:13.988Z</time></trkpt><trkpt lat="40.80930961674699" lon="8.901165663552293"><ele>108.00000000000001</ele><time>2026-05-01T08:01:15.988Z</time></trkpt><trkpt lat="40.80936710278172" lon="8.901070930784858"><ele>108.0</ele><time>2026-05-01T08:01:16.988Z</time></trkpt><trkpt lat="40.80943583490601" lon="8.90096167160082"><ele>108.0</ele><time>2026-05-01T08:01:17.988Z</time></trkpt><trkpt lat="40.80952100982622" lon="8.900833913495989"><ele>106.5</ele><time>2026-05-01T08:01:18.988Z</time></trkpt><trkpt lat="40.80961413399023" lon="8.90069083123577"><ele>105.0</ele><time>2026-05-01T08:01:19.988Z</time></trkpt><trkpt lat="40.80969833571612" lon="8.900548536010737"><ele>103.5</ele><time>2026-05-01T08:01:20.988Z</time></trkpt><trkpt lat="40.80978724148322" lon="8.900414941044648"><ele>102.0</ele><time>2026-05-01T08:01:21.988Z</time></trkpt><trkpt lat="40.8098627569307" lon="8.900275790447202"><ele>102.0</ele><time>2026-05-01T08:01:22.988Z</time></trkpt><trkpt lat="40.809940469380436" lon="8.900122121976576"><ele>102.0</ele><time>2026-05-01T08:01:23.988Z</time></trkpt><trkpt lat="40.809871816207306" lon="8.900276971081881"><ele>102.0</ele><time>2026-05-01T08:01:24.988Z</time></trkpt><trkpt lat="40.80993447958327" lon="8.900156368874816"><ele>102.0</ele><time>2026-05-01T08:01:25.988Z</time></trkpt><trkpt lat="40.80999762394993" lon="8.90003866548738"><ele>99.6</ele><time>2026-05-01T08:01:26.988Z</time></trkpt><trkpt lat="40.810061090912725" lon="8.899925026183974"><ele>97.19999999999999</ele><time>2026-05-01T08:01:27.988Z</time></trkpt><trkpt lat="40.81011841975297" lon="8.899823653172282"><ele>94.8</ele><time>2026-05-01T08:01:28.988Z</time></trkpt><trkpt lat="40.810183647006774" lon="8.899725019804759"><ele>92.4</ele><time>2026-05-01T08:01:29.988Z</time></trkpt><trkpt lat="40.81025782580991" lon="8.89964281084221"><ele>90.0</ele><time>2026-05-01T08:01:30.988Z</time></trkpt><trkpt lat="40.81034079874258" lon="8.89955014341264"><ele>88.5</ele><time>2026-05-01T08:01:31.988Z</time></trkpt><trkpt lat="40.81042862553901" lon="8.899460772528505"><ele>87.0</ele><time>2026-05-01T08:01:32.988Z</time></trkpt><trkpt lat="40.81052364143302" lon="8.899363191997884"><ele>85.5</ele><time>2026-05-01T08:01:33.988Z</time></trkpt><trkpt lat="40.810622485144094" lon="8.899264055412225"><ele>84.0</ele><time>2026-05-01T08:01:34.988Z</time></trkpt><trkpt lat="40.81072647186559" lon="8.899167470250141"><ele>81.25</ele><time>2026-05-01T08:01:35.988Z</time></trkpt><trkpt lat="40.810830099844054" lon="8.899074792683862"><ele>78.5</ele><time>2026-05-01T08:01:36.987Z</time></trkpt><trkpt lat="40.81094164655966" lon="8.898974855303281"><ele>75.75</ele><time>2026-05-01T08:01:37.987Z</time></trkpt><trkpt lat="40.811051449758075" lon="8.898872834554943"><ele>73.0</ele><time>2026-05-01T08:01:38.987Z</time></trkpt><trkpt lat="40.811165794297516" lon="8.898771235264206"><ele>70.75</ele><time>2026-05-01T08:01:39.988Z</time></trkpt><trkpt lat="40.81128169971933" lon="8.898678991699269"><ele>68.5</ele><time>2026-05-01T08:01:40.987Z</time></trkpt><trkpt lat="40.81139599046138" lon="8.898588310139287"><ele>66.25</ele><time>2026-05-01T08:01:41.987Z</time></trkpt><trkpt lat="40.811502104631884" lon="8.898491707195339"><ele>64.0</ele><time>2026-05-01T08:01:42.988Z</time></trkpt><trkpt lat="40.81160197639386" lon="8.898401574411105"><ele>63.400000000000006</ele><time>2026-05-01T08:01:43.987Z</time></trkpt><trkpt lat="40.81169549004084" lon="8.898310913644101"><ele>62.800000000000004</ele><time>2026-05-01T08:01:44.987Z</time></trkpt><trkpt lat="40.81177848055685" lon="8.898239020104603"><ele>62.199999999999996</ele><time>2026-05-01T08:01:45.987Z</time></trkpt><trkpt lat="40.811863656304716" lon="8.898190666839824"><ele>61.599999999999994</ele><time>2026-05-01T08:01:46.987Z</time></trkpt><trkpt lat="40.811947707765746" lon="8.898184008856816"><ele>61.0</ele><time>2026-05-01T08:01:47.987Z</time></trkpt><trkpt lat="40.81203679906069" lon="8.898190775030681"><ele>60.0</ele><time>2026-05-01T08:01:48.987Z</time></trkpt><trkpt lat="40.812122942572834" lon="8.898195144951355"><ele>58.99999999999999</ele><time>2026-05-01T08:01:49.987Z</time></trkpt><trkpt lat="40.81221814521566" lon="8.898193154777992"><ele>57.99999999999999</ele><time>2026-05-01T08:01:50.987Z</time></trkpt><trkpt lat="40.81232094507622" lon="8.898207530881612"><ele>57.0</ele><time>2026-05-01T08:01:51.987Z</time></trkpt><trkpt lat="40.81241541237272" lon="8.898226639725156"><ele>56.0</ele><time>2026-05-01T08:01:52.987Z</time></trkpt><trkpt lat="40.81248848152282" lon="8.898270320006377"><ele>56.00000000000001</ele><time>2026-05-01T08:01:53.987Z</time></trkpt><trkpt lat="40.81255740658537" lon="8.898320647217927"><ele>56.0</ele><time>2026-05-01T08:01:54.987Z</time></trkpt><trkpt lat="40.81261750232067" lon="8.898397941115741"><ele>56.0</ele><time>2026-05-01T08:01:55.987Z</time></trkpt><trkpt lat="40.81265696401143" lon="8.898498868693578"><ele>56.0</ele><time>2026-05-01T08:01:56.987Z</time></trkpt><trkpt lat="40.81269313696897" lon="8.898604049616074"><ele>56.00000000000001</ele><time>2026-05-01T08:01:57.987Z</time></trkpt><trkpt lat="40.81273237962802" lon="8.898719685375754"><ele>56.0</ele><time>2026-05-01T08:01:58.987Z</time></trkpt><trkpt lat="40.8127821366158" lon="8.898847229861845"><ele>55.0</ele><time>2026-05-01T08:01:59.987Z</time></trkpt><trkpt lat="40.81279533995514" lon="8.899001344155042"><ele>54.0</ele><time>2026-05-01T08:02:00.987Z</time></trkpt><trkpt lat="40.81281781727118" lon="8.899148810413621"><ele>53.0</ele><time>2026-05-01T08:02:01.987Z</time></trkpt><trkpt lat="40.81283864238291" lon="8.899315512171087"><ele>52.0</ele><time>2026-05-01T08:02:02.987Z</time></trkpt><trkpt lat="40.81286688197064" lon="8.899492657781684"><ele>52.0</ele><time>2026-05-01T08:02:03.987Z</time></trkpt><trkpt lat="40.81289164328761" lon="8.89965907675087"><ele>52.0</ele><time>2026-05-01T08:02:04.987Z</time></trkpt><trkpt lat="40.81291879330342" lon="8.899805400052216"><ele>52.0</ele><time>2026-05-01T08:02:05.987Z</time></trkpt><trkpt lat="40.81296213629727" lon="8.899949159364397"><ele>52.0</ele><time>2026-05-01T08:02:06.987Z</time></trkpt><trkpt lat="40.813011805451495" lon="8.900112439472759"><ele>52.400000000000006</ele><time>2026-05-01T08:02:07.987Z</time></trkpt><trkpt lat="40.81306417101207" lon="8.900274974428058"><ele>52.800000000000004</ele><time>2026-05-01T08:02:08.987Z</time></trkpt><trkpt lat="40.813106110598994" lon="8.90041070394425"><ele>53.2</ele><time>2026-05-01T08:02:09.987Z</time></trkpt><trkpt lat="40.81313508683963" lon="8.90052028915828"><ele>53.6</ele><time>2026-05-01T08:02:10.987Z</time></trkpt><trkpt lat="40.81316698261707" lon="8.900604804873227"><ele>54.0</ele><time>2026-05-01T08:02:11.987Z</time></trkpt><trkpt lat="40.81324193453473" lon="8.900659443947061"><ele>54.0</ele><time>2026-05-01T08:02:13.987Z</time></trkpt><trkpt lat="40.81335509560544" lon="8.900623830690366"><ele>54.0</ele><time>2026-05-01T08:02:15.987Z</time></trkpt><trkpt lat="40.8134440083253" lon="8.900565371814015"><ele>54.0</ele><time>2026-05-01T08:02:16.987Z</time></trkpt><trkpt lat="40.81354909285367" lon="8.900493694657698"><ele>54.0</ele><time>2026-05-01T08:02:17.987Z</time></trkpt><trkpt lat="40.8136618072949" lon="8.90041892104534"><ele>52.75</ele><time>2026-05-01T08:02:18.987Z</time></trkpt><trkpt lat="40.8137834820889" lon="8.90036400839715"><ele>51.5</ele><time>2026-05-01T08:02:19.987Z</time></trkpt><trkpt lat="40.81390886167374" lon="8.900316865789682"><ele>50.25</ele><time>2026-05-01T08:02:20.987Z</time></trkpt><trkpt lat="40.81403630341487" lon="8.900277636634657"><ele>49.0</ele><time>2026-05-01T08:02:21.987Z</time></trkpt><trkpt lat="40.814165356390845" lon="8.900240740628936"><ele>49.0</ele><time>2026-05-01T08:02:22.987Z</time></trkpt><trkpt lat="40.8142952764171" lon="8.900224140358144"><ele>49.0</ele><time>2026-05-01T08:02:23.987Z</time></trkpt><trkpt lat="40.81442548984009" lon="8.900220869977955"><ele>49.0</ele><time>2026-05-01T08:02:24.987Z</time></trkpt><trkpt lat="40.81455959262944" lon="8.900215661515496"><ele>49.0</ele><time>2026-05-01T08:02:25.987Z</time></trkpt><trkpt lat="40.81468772643293" lon="8.900225237977645"><ele>48.400000000000006</ele><time>2026-05-01T08:02:26.987Z</time></trkpt><trkpt lat="40.81480565372636" lon="8.900244854131197"><ele>47.8</ele><time>2026-05-01T08:02:27.987Z</time></trkpt><trkpt lat="40.81491236798311" lon="8.900273438906225"><ele>47.2</ele><time>2026-05-01T08:02:28.987Z</time></trkpt><trkpt lat="40.815010464246384" lon="8.900311421237836"><ele>46.599999999999994</ele><time>2026-05-01T08:02:29.987Z</time></trkpt><trkpt lat="40.81511666534443" lon="8.900356369252172"><ele>46.0</ele><time>2026-05-01T08:02:30.987Z</time></trkpt><trkpt lat="40.815224420138186" lon="8.900421683797552"><ele>45.8</ele><time>2026-05-01T08:02:31.987Z</time></trkpt><trkpt lat="40.815340974853164" lon="8.900483088175916"><ele>45.599999999999994</ele><time>2026-05-01T08:02:32.987Z</time></trkpt><trkpt lat="40.81544157437538" lon="8.900534186630088"><ele>45.4</ele><time>2026-05-01T08:02:33.987Z</time></trkpt><trkpt lat="40.81551245937814" lon="8.900564155575053"><ele>45.2</ele><time>2026-05-01T08:02:34.987Z</time></trkpt><trkpt lat="40.81560913112917" lon="8.900514330957462"><ele>45.0</ele><time>2026-05-01T08:02:37.987Z</time></trkpt><trkpt lat="40.81566472512966" lon="8.900459987950313"><ele>45.0</ele><time>2026-05-01T08:02:38.987Z</time></trkpt><trkpt lat="40.81573881648349" lon="8.900388591909064"><ele>45.0</ele><time>2026-05-01T08:02:39.987Z</time></trkpt><trkpt lat="40.81583062724352" lon="8.90029667808998"><ele>45.0</ele><time>2026-05-01T08:02:40.987Z</time></trkpt><trkpt lat="40.81592372593364" lon="8.900186907761693"><ele>45.0</ele><time>2026-05-01T08:02:41.987Z</time></trkpt><trkpt lat="40.81602313991811" lon="8.900061994146172"><ele>44.333333333333336</ele><time>2026-05-01T08:02:42.987Z</time></trkpt><trkpt lat="40.81610930676985" lon="8.899942748837335"><ele>43.666666666666664</ele><time>2026-05-01T08:02:43.987Z</time></trkpt><trkpt lat="40.81617829050814" lon="8.899851591938278"><ele>43.0</ele><time>2026-05-01T08:02:44.987Z</time></trkpt><trkpt lat="40.81624089621944" lon="8.899800407032412"><ele>42.33333333333333</ele><time>2026-05-01T08:02:45.987Z</time></trkpt><trkpt lat="40.816306246861345" lon="8.89978007713352"><ele>41.666666666666664</ele><time>2026-05-01T08:02:46.987Z</time></trkpt><trkpt lat="40.816379046250155" lon="8.8997915519824"><ele>41.0</ele><time>2026-05-01T08:02:47.987Z</time></trkpt><trkpt lat="40.81643298294669" lon="8.899868427020266"><ele>41.0</ele><time>2026-05-01T08:02:48.987Z</time></trkpt><trkpt lat="40.81649839373352" lon="8.89992721471916"><ele>41.0</ele><time>2026-05-01T08:02:49.987Z</time></trkpt><trkpt lat="40.8165723096984" lon="8.899980471505724"><ele>41.0</ele><time>2026-05-01T08:02:50.987Z</time></trkpt><trkpt lat="40.81664584906423" lon="8.900038816766603"><ele>41.0</ele><time>2026-05-01T08:02:52.987Z</time></trkpt><trkpt lat="40.81672625250323" lon="8.899989182909795"><ele>41.0</ele><time>2026-05-01T08:02:55.987Z</time></trkpt><trkpt lat="40.816777595666466" lon="8.899934455966616"><ele>41.0</ele><time>2026-05-01T08:02:59.987Z</time></trkpt><trkpt lat="40.81683146737554" lon="8.899868167063495"><ele>41.199999999999996</ele><time>2026-05-01T08:09:18.971Z</time></trkpt><trkpt lat="40.816916064494336" lon="8.89976166135735"><ele>41.4</ele><time>2026-05-01T08:10:09.97Z</time></trkpt><trkpt lat="40.81695799528449" lon="8.899684970491178"><ele>41.6</ele><time>2026-05-01T08:10:14.97Z</time></trkpt><trkpt lat="40.81699591559648" lon="8.899601700928145"><ele>41.8</ele><time>2026-05-01T08:11:22.97Z</time></trkpt><trkpt lat="40.8170538063582" lon="8.899521522943624"><ele>42.0</ele><time>2026-05-01T08:11:24.97Z</time></trkpt><trkpt lat="40.8171153902056" lon="8.899408168094164"><ele>42.0</ele><time>2026-05-01T08:11:26.97Z</time></trkpt><trkpt lat="40.81720162509966" lon="8.899314291051073"><ele>42.0</ele><time>2026-05-01T08:11:28.97Z</time></trkpt><trkpt lat="40.81733086996135" lon="8.89923184693089"><ele>42.0</ele><time>2026-05-01T08:11:30.97Z</time></trkpt><trkpt lat="40.8174093909003" lon="8.899193187013257"><ele>42.0</ele><time>2026-05-01T08:11:31.97Z</time></trkpt><trkpt lat="40.817495213474025" lon="8.899142135611438"><ele>42.0</ele><time>2026-05-01T08:11:32.97Z</time></trkpt><trkpt lat="40.81757832857409" lon="8.899087664020364"><ele>41.6</ele><time>2026-05-01T08:11:33.97Z</time></trkpt><trkpt lat="40.817673101173064" lon="8.899025062623991"><ele>41.2</ele><time>2026-05-01T08:11:34.97Z</time></trkpt><trkpt lat="40.81776903999522" lon="8.898951805525082"><ele>40.8</ele><time>2026-05-01T08:11:35.97Z</time></trkpt><trkpt lat="40.81786753518572" lon="8.898875572575593"><ele>40.4</ele><time>2026-05-01T08:11:36.97Z</time></trkpt><trkpt lat="40.81795943214358" lon="8.898789905008005"><ele>40.0</ele><time>2026-05-01T08:11:37.97Z</time></trkpt><trkpt lat="40.818048562135935" lon="8.898709473003343"><ele>40.0</ele><time>2026-05-01T08:11:38.97Z</time></trkpt><trkpt lat="40.818130980570054" lon="8.898610397537412"><ele>40.0</ele><time>2026-05-01T08:11:39.97Z</time></trkpt><trkpt lat="40.81820003717435" lon="8.898510061113255"><ele>40.0</ele><time>2026-05-01T08:11:40.97Z</time></trkpt><trkpt lat="40.818259785426704" lon="8.898415529130375"><ele>40.0</ele><time>2026-05-01T08:11:41.97Z</time></trkpt><trkpt lat="40.81831505225409" lon="8.898312377726596"><ele>40.0</ele><time>2026-05-01T08:11:42.97Z</time></trkpt><trkpt lat="40.81837222467666" lon="8.898188675927555"><ele>40.0</ele><time>2026-05-01T08:11:43.97Z</time></trkpt><trkpt lat="40.81843484398203" lon="8.898052707247112"><ele>40.0</ele><time>2026-05-01T08:11:44.97Z</time></trkpt><trkpt lat="40.81849671781958" lon="8.897913533563035"><ele>40.0</ele><time>2026-05-01T08:11:45.97Z</time></trkpt><trkpt lat="40.818560284807255" lon="8.897794499340783"><ele>40.0</ele><time>2026-05-01T08:11:46.97Z</time></trkpt><trkpt lat="40.818631128885" lon="8.897674675947517"><ele>40.5</ele><time>2026-05-01T08:11:47.97Z</time></trkpt><trkpt lat="40.81870714110138" lon="8.897557696277898"><ele>41.0</ele><time>2026-05-01T08:11:48.97Z</time></trkpt><trkpt lat="40.81879205746176" lon="8.897444547926503"><ele>41.5</ele><time>2026-05-01T08:11:49.97Z</time></trkpt><trkpt lat="40.818883726387206" lon="8.897335503218228"><ele>42.0</ele><time>2026-05-01T08:11:50.97Z</time></trkpt><trkpt lat="40.81898181945089" lon="8.897224176859273"><ele>42.0</ele><time>2026-05-01T08:11:51.97Z</time></trkpt><trkpt lat="40.81906504450975" lon="8.89712001901764"><ele>42.0</ele><time>2026-05-01T08:11:52.97Z</time></trkpt><trkpt lat="40.8191474442086" lon="8.897001716629413"><ele>42.0</ele><time>2026-05-01T08:11:53.97Z</time></trkpt><trkpt lat="40.819228881569536" lon="8.896879282075213"><ele>42.0</ele><time>2026-05-01T08:11:54.97Z</time></trkpt><trkpt lat="40.819309496371744" lon="8.8967611518678"><ele>42.2</ele><time>2026-05-01T08:11:55.97Z</time></trkpt><trkpt lat="40.81939482360586" lon="8.896639992532405"><ele>42.400000000000006</ele><time>2026-05-01T08:11:56.97Z</time></trkpt><trkpt lat="40.81946583233879" lon="8.896534661101446"><ele>42.599999999999994</ele><time>2026-05-01T08:11:57.97Z</time></trkpt><trkpt lat="40.81952440550896" lon="8.896437071562877"><ele>42.8</ele><time>2026-05-01T08:11:58.97Z</time></trkpt><trkpt lat="40.81958668800278" lon="8.89634754615813"><ele>43.0</ele><time>2026-05-01T08:11:59.97Z</time></trkpt><trkpt lat="40.81961715053557" lon="8.896211611212106"><ele>43.0</ele><time>2026-05-01T08:12:00.97Z</time></trkpt><trkpt lat="40.81966531525289" lon="8.896076427687476"><ele>43.0</ele><time>2026-05-01T08:12:01.97Z</time></trkpt><trkpt lat="40.819706243892846" lon="8.895943378999318"><ele>43.0</ele><time>2026-05-01T08:12:02.97Z</time></trkpt><trkpt lat="40.819750494125955" lon="8.895806483966009"><ele>43.0</ele><time>2026-05-01T08:12:03.97Z</time></trkpt><trkpt lat="40.81980024514592" lon="8.895668222326892"><ele>42.75</ele><time>2026-05-01T08:12:04.969Z</time></trkpt><trkpt lat="40.81985563438719" lon="8.895521765123485"><ele>42.5</ele><time>2026-05-01T08:12:05.969Z</time></trkpt><trkpt lat="40.81990565783702" lon="8.895375099376535"><ele>42.25</ele><time>2026-05-01T08:12:06.969Z</time></trkpt><trkpt lat="40.8199516060417" lon="8.895232956903882"><ele>42.0</ele><time>2026-05-01T08:12:07.969Z</time></trkpt><trkpt lat="40.819991273763" lon="8.895088539087029"><ele>43.0</ele><time>2026-05-01T08:12:08.969Z</time></trkpt><trkpt lat="40.82002553868788" lon="8.894943754075273"><ele>44.0</ele><time>2026-05-01T08:12:09.969Z</time></trkpt><trkpt lat="40.82006003032335" lon="8.894806571178494"><ele>45.0</ele><time>2026-05-01T08:12:10.969Z</time></trkpt><trkpt lat="40.82008997566041" lon="8.894666522871933"><ele>46.0</ele><time>2026-05-01T08:12:11.969Z</time></trkpt><trkpt lat="40.82012355558496" lon="8.894526375939284"><ele>47.0</ele><time>2026-05-01T08:12:12.969Z</time></trkpt><trkpt lat="40.82016320733184" lon="8.894386401938233"><ele>48.75</ele><time>2026-05-01T08:12:13.968Z</time></trkpt><trkpt lat="40.82021877338755" lon="8.894252002242514"><ele>50.5</ele><time>2026-05-01T08:12:14.968Z</time></trkpt><trkpt lat="40.82033514750835" lon="8.894123261740814"><ele>52.25</ele><time>2026-05-01T08:12:15.969Z</time></trkpt><trkpt lat="40.820383248671575" lon="8.893958582518227"><ele>54.0</ele><time>2026-05-01T08:12:16.969Z</time></trkpt><trkpt lat="40.820435305740915" lon="8.893819308662179"><ele>54.0</ele><time>2026-05-01T08:12:17.969Z</time></trkpt><trkpt lat="40.820494072100374" lon="8.893669793179896"><ele>54.00000000000001</ele><time>2026-05-01T08:12:18.969Z</time></trkpt><trkpt lat="40.820534724267" lon="8.893577493999803"><ele>54.00000000000001</ele><time>2026-05-01T08:12:19.969Z</time></trkpt><trkpt lat="40.820632072524376" lon="8.89344375061901"><ele>54.0</ele><time>2026-05-01T08:12:21.969Z</time></trkpt><trkpt lat="40.82070255423202" lon="8.893382338330396"><ele>54.0</ele><time>2026-05-01T08:12:22.969Z</time></trkpt><trkpt lat="40.820783746115026" lon="8.893298352234876"><ele>53.0</ele><time>2026-05-01T08:12:23.969Z</time></trkpt><trkpt lat="40.82089272328491" lon="8.89323762486226"><ele>52.00000000000001</ele><time>2026-05-01T08:12:24.969Z</time></trkpt><trkpt lat="40.82100358681845" lon="8.893195998219724"><ele>51.0</ele><time>2026-05-01T08:12:25.969Z</time></trkpt><trkpt lat="40.82110427139499" lon="8.893173965154975"><ele>50.0</ele><time>2026-05-01T08:12:26.969Z</time></trkpt><trkpt lat="40.82118058386377" lon="8.893126048082715"><ele>49.0</ele><time>2026-05-01T08:12:27.969Z</time></trkpt><trkpt lat="40.82128444778621" lon="8.893238460726792"><ele>48.6</ele><time>2026-05-01T08:12:29.969Z</time></trkpt><trkpt lat="40.82136627938658" lon="8.893348545819714"><ele>48.2</ele><time>2026-05-01T08:12:31.969Z</time></trkpt><trkpt lat="40.82140883875585" lon="8.893417266222604"><ele>47.800000000000004</ele><time>2026-05-01T08:12:32.969Z</time></trkpt><trkpt lat="40.82145044358881" lon="8.893511553185869"><ele>47.400000000000006</ele><time>2026-05-01T08:12:33.969Z</time></trkpt><trkpt lat="40.821507385098506" lon="8.893635894690322"><ele>47.0</ele><time>2026-05-01T08:12:34.969Z</time></trkpt><trkpt lat="40.82157730231182" lon="8.893787861094943"><ele>47.33333333333333</ele><time>2026-05-01T08:12:35.969Z</time></trkpt><trkpt lat="40.82166100023421" lon="8.893967482867378"><ele>47.666666666666664</ele><time>2026-05-01T08:12:36.969Z</time></trkpt><trkpt lat="40.821755489451824" lon="8.894150991104006"><ele>48.0</ele><time>2026-05-01T08:12:37.969Z</time></trkpt><trkpt lat="40.82186371270695" lon="8.894335341385737"><ele>48.0</ele><time>2026-05-01T08:12:38.969Z</time></trkpt><trkpt lat="40.82194976343266" lon="8.894476398960437"><ele>48.0</ele><time>2026-05-01T08:12:39.969Z</time></trkpt><trkpt lat="40.82205210358066" lon="8.894613557537946"><ele>48.0</ele><time>2026-05-01T08:12:40.969Z</time></trkpt><trkpt lat="40.822154063047854" lon="8.894734916077132"><ele>48.0</ele><time>2026-05-01T08:12:41.969Z</time></trkpt><trkpt lat="40.82222876087682" lon="8.894852019366791"><ele>48.0</ele><time>2026-05-01T08:12:42.969Z</time></trkpt><trkpt lat="40.8222913100538" lon="8.894939136996197"><ele>48.0</ele><time>2026-05-01T08:12:43.969Z</time></trkpt><trkpt lat="40.82232490587743" lon="8.895042604588651"><ele>48.0</ele><time>2026-05-01T08:12:45.969Z</time></trkpt><trkpt lat="40.82237735604546" lon="8.895168934896754"><ele>48.0</ele><time>2026-05-01T08:12:46.969Z</time></trkpt><trkpt lat="40.82241341166274" lon="8.895302445014494"><ele>48.0</ele><time>2026-05-01T08:12:47.969Z</time></trkpt><trkpt lat="40.822484414103634" lon="8.895426627615393"><ele>47.8</ele><time>2026-05-01T08:12:49.969Z</time></trkpt><trkpt lat="40.822543634056224" lon="8.895551445660372"><ele>47.599999999999994</ele><time>2026-05-01T08:12:51.969Z</time></trkpt><trkpt lat="40.82261041265592" lon="8.895696282589904"><ele>47.400000000000006</ele><time>2026-05-01T08:12:53.969Z</time></trkpt><trkpt lat="40.82265001055842" lon="8.895775964756721"><ele>47.2</ele><time>2026-05-01T08:12:54.969Z</time></trkpt><trkpt lat="40.82269115025067" lon="8.895852582544304"><ele>47.0</ele><time>2026-05-01T08:12:55.969Z</time></trkpt><trkpt lat="40.8227593892493" lon="8.895979750866726"><ele>47.0</ele><time>2026-05-01T08:12:56.969Z</time></trkpt><trkpt lat="40.822869083356906" lon="8.896096641073061"><ele>47.0</ele><time>2026-05-01T08:12:57.969Z</time></trkpt><trkpt lat="40.82295496866662" lon="8.896161594673186"><ele>47.0</ele><time>2026-05-01T08:12:58.969Z</time></trkpt><trkpt lat="40.82303531945531" lon="8.89623313320362"><ele>47.0</ele><time>2026-05-01T08:12:59.969Z</time></trkpt><trkpt lat="40.82311289864317" lon="8.89630504991557"><ele>47.0</ele><time>2026-05-01T08:13:00.969Z</time></trkpt><trkpt lat="40.82319441980797" lon="8.896381444745908"><ele>47.0</ele><time>2026-05-01T08:13:01.969Z</time></trkpt><trkpt lat="40.823280209162704" lon="8.896458324393073"><ele>47.0</ele><time>2026-05-01T08:13:02.969Z</time></trkpt><trkpt lat="40.82337262297561" lon="8.896533635861081"><ele>47.0</ele><time>2026-05-01T08:13:03.969Z</time></trkpt><trkpt lat="40.82346687848551" lon="8.896608428741319"><ele>47.0</ele><time>2026-05-01T08:13:04.969Z</time></trkpt><trkpt lat="40.823562330296134" lon="8.89668644653688"><ele>47.0</ele><time>2026-05-01T08:13:05.969Z</time></trkpt><trkpt lat="40.82365576739341" lon="8.896772836859002"><ele>46.6</ele><time>2026-05-01T08:13:06.969Z</time></trkpt><trkpt lat="40.82375114301642" lon="8.896851276856898"><ele>46.2</ele><time>2026-05-01T08:13:07.969Z</time></trkpt><trkpt lat="40.823848897843824" lon="8.896924595600584"><ele>45.8</ele><time>2026-05-01T08:13:08.969Z</time></trkpt><trkpt lat="40.82394295150788" lon="8.89699640220339"><ele>45.4</ele><time>2026-05-01T08:13:09.969Z</time></trkpt><trkpt lat="40.824026663192136" lon="8.897066025002433"><ele>45.0</ele><time>2026-05-01T08:13:10.969Z</time></trkpt><trkpt lat="40.8241028665973" lon="8.897129886725907"><ele>45.0</ele><time>2026-05-01T08:13:11.969Z</time></trkpt><trkpt lat="40.82418666623487" lon="8.897181247536325"><ele>45.0</ele><time>2026-05-01T08:13:12.969Z</time></trkpt><trkpt lat="40.82426728275088" lon="8.897230588984439"><ele>45.0</ele><time>2026-05-01T08:13:13.969Z</time></trkpt><trkpt lat="40.8243384602701" lon="8.897260323606199"><ele>45.0</ele><time>2026-05-01T08:13:14.969Z</time></trkpt><trkpt lat="40.82443651548032" lon="8.897345131168318"><ele>45.0</ele><time>2026-05-01T08:13:16.969Z</time></trkpt><trkpt lat="40.82451845361732" lon="8.89741276516698"><ele>43.5</ele><time>2026-05-01T08:13:18.969Z</time></trkpt><trkpt lat="40.8244665933608" lon="8.896913077954279"><ele>42.0</ele><time>2026-05-01T08:13:20.969Z</time></trkpt><trkpt lat="40.824516043223745" lon="8.896795125956778"><ele>42.0</ele><time>2026-05-01T08:13:21.969Z</time></trkpt><trkpt lat="40.824578736309064" lon="8.896656861008566"><ele>42.0</ele><time>2026-05-01T08:13:22.969Z</time></trkpt><trkpt lat="40.824644303194326" lon="8.896502011211783"><ele>42.0</ele><time>2026-05-01T08:13:23.969Z</time></trkpt><trkpt lat="40.82471645048998" lon="8.896343563957407"><ele>42.0</ele><time>2026-05-01T08:13:24.969Z</time></trkpt><trkpt lat="40.82478983229097" lon="8.896185915894478"><ele>42.0</ele><time>2026-05-01T08:13:25.969Z</time></trkpt><trkpt lat="40.824862872884175" lon="8.896036517180285"><ele>42.0</ele><time>2026-05-01T08:13:26.969Z</time></trkpt><trkpt lat="40.82491294563494" lon="8.895934673640316"><ele>42.0</ele><time>2026-05-01T08:13:27.969Z</time></trkpt><trkpt lat="40.82496999396021" lon="8.895887913995491"><ele>42.0</ele><time>2026-05-01T08:13:30.969Z</time></trkpt><trkpt lat="40.82506511946216" lon="8.895942821717508"><ele>42.0</ele><time>2026-05-01T08:13:33.969Z</time></trkpt><trkpt lat="40.82513560869776" lon="8.895980287373037"><ele>41.8</ele><time>2026-05-01T08:13:34.969Z</time></trkpt><trkpt lat="40.82522582010018" lon="8.896031811088035"><ele>41.6</ele><time>2026-05-01T08:13:35.969Z</time></trkpt><trkpt lat="40.825315994011135" lon="8.89607527420948"><ele>41.4</ele><time>2026-05-01T08:13:36.969Z</time></trkpt><trkpt lat="40.825413069619245" lon="8.896120737238707"><ele>41.199999999999996</ele><time>2026-05-01T08:13:37.969Z</time></trkpt><trkpt lat="40.82551844206859" lon="8.896173920802527"><ele>41.0</ele><time>2026-05-01T08:13:38.969Z</time></trkpt><trkpt lat="40.825611686443615" lon="8.896230264178191"><ele>41.0</ele><time>2026-05-01T08:13:39.969Z</time></trkpt><trkpt lat="40.82570609207969" lon="8.896287466862512"><ele>41.0</ele><time>2026-05-01T08:13:40.969Z</time></trkpt><trkpt lat="40.82581103669921" lon="8.896348723976885"><ele>41.0</ele><time>2026-05-01T08:13:41.969Z</time></trkpt><trkpt lat="40.82591716069448" lon="8.896399340926575"><ele>41.0</ele><time>2026-05-01T08:13:42.969Z</time></trkpt><trkpt lat="40.826031587258356" lon="8.896463319968001"><ele>40.4</ele><time>2026-05-01T08:13:43.969Z</time></trkpt><trkpt lat="40.826128957982725" lon="8.89649937000317"><ele>39.8</ele><time>2026-05-01T08:13:44.969Z</time></trkpt><trkpt lat="40.826225299724136" lon="8.896541778729292"><ele>39.199999999999996</ele><time>2026-05-01T08:13:45.969Z</time></trkpt><trkpt lat="40.8263243442826" lon="8.896578072003056"><ele>38.599999999999994</ele><time>2026-05-01T08:13:46.969Z</time></trkpt><trkpt lat="40.82642252520247" lon="8.896610403654734"><ele>38.0</ele><time>2026-05-01T08:13:47.969Z</time></trkpt><trkpt lat="40.826512041050265" lon="8.896657547591914"><ele>38.0</ele><time>2026-05-01T08:13:48.969Z</time></trkpt><trkpt lat="40.82660601839818" lon="8.896707300820648"><ele>38.0</ele><time>2026-05-01T08:13:49.969Z</time></trkpt><trkpt lat="40.82667831299377" lon="8.896753472853351"><ele>38.0</ele><time>2026-05-01T08:13:50.969Z</time></trkpt><trkpt lat="40.82676044944675" lon="8.89678620038867"><ele>38.0</ele><time>2026-05-01T08:13:51.969Z</time></trkpt><trkpt lat="40.82684676123108" lon="8.896832192535319"><ele>38.0</ele><time>2026-05-01T08:13:52.969Z</time></trkpt><trkpt lat="40.826937628694346" lon="8.89688414480423"><ele>37.5</ele><time>2026-05-01T08:13:53.969Z</time></trkpt><trkpt lat="40.82702676644635" lon="8.89693825719671"><ele>37.0</ele><time>2026-05-01T08:13:54.969Z</time></trkpt><trkpt lat="40.827103039771615" lon="8.896987198554704"><ele>36.5</ele><time>2026-05-01T08:13:55.969Z</time></trkpt><trkpt lat="40.82717947565778" lon="8.897049456343447"><ele>36.0</ele><time>2026-05-01T08:13:56.969Z</time></trkpt><trkpt lat="40.827240692516256" lon="8.897125689045644"><ele>35.5</ele><time>2026-05-01T08:13:57.969Z</time></trkpt><trkpt lat="40.82729704409737" lon="8.8972204462247"><ele>35.0</ele><time>2026-05-01T08:13:59.969Z</time></trkpt><trkpt lat="40.82726598282911" lon="8.897143795930752"><ele>35.0</ele><time>2026-05-01T08:14:50.967Z</time></trkpt><trkpt lat="40.827166710462805" lon="8.897032889411154"><ele>35.0</ele><time>2026-05-01T08:14:52.967Z</time></trkpt><trkpt lat="40.827105573395585" lon="8.896984679737592"><ele>35.0</ele><time>2026-05-01T08:14:53.967Z</time></trkpt><trkpt lat="40.82703615083933" lon="8.896935606631057"><ele>35.0</ele><time>2026-05-01T08:14:54.967Z</time></trkpt><trkpt lat="40.82695439018432" lon="8.896894280746423"><ele>35.0</ele><time>2026-05-01T08:14:55.967Z</time></trkpt><trkpt lat="40.82686975365402" lon="8.89684907279919"><ele>35.33333333333333</ele><time>2026-05-01T08:14:56.967Z</time></trkpt><trkpt lat="40.82678764150553" lon="8.896801423760685"><ele>35.666666666666664</ele><time>2026-05-01T08:14:57.967Z</time></trkpt><trkpt lat="40.82671513894608" lon="8.89675856661991"><ele>36.0</ele><time>2026-05-01T08:14:58.967Z</time></trkpt><trkpt lat="40.8266415605731" lon="8.896719204540622"><ele>36.333333333333336</ele><time>2026-05-01T08:14:59.967Z</time></trkpt><trkpt lat="40.826562062455366" lon="8.896677529265425"><ele>36.66666666666667</ele><time>2026-05-01T08:15:00.967Z</time></trkpt><trkpt lat="40.82647106646536" lon="8.89663153799285"><ele>37.0</ele><time>2026-05-01T08:15:01.967Z</time></trkpt><trkpt lat="40.82637153490171" lon="8.896583220113238"><ele>37.2</ele><time>2026-05-01T08:15:02.967Z</time></trkpt><trkpt lat="40.826274270386506" lon="8.896539736133517"><ele>37.400000000000006</ele><time>2026-05-01T08:15:03.967Z</time></trkpt><trkpt lat="40.82618676323472" lon="8.896503513080226"><ele>37.599999999999994</ele><time>2026-05-01T08:15:04.967Z</time></trkpt><trkpt lat="40.826087907631866" lon="8.896467986851246"><ele>37.8</ele><time>2026-05-01T08:15:05.967Z</time></trkpt><trkpt lat="40.82599017672336" lon="8.89642189720181"><ele>38.0</ele><time>2026-05-01T08:15:06.967Z</time></trkpt><trkpt lat="40.82589000405862" lon="8.8963758884001"><ele>38.599999999999994</ele><time>2026-05-01T08:15:07.967Z</time></trkpt><trkpt lat="40.82578921764149" lon="8.896334898232604"><ele>39.199999999999996</ele><time>2026-05-01T08:15:08.967Z</time></trkpt><trkpt lat="40.82569246970772" lon="8.896286044178217"><ele>39.8</ele><time>2026-05-01T08:15:09.967Z</time></trkpt><trkpt lat="40.82558897563386" lon="8.896228238099582"><ele>40.4</ele><time>2026-05-01T08:15:10.967Z</time></trkpt><trkpt lat="40.82549065352372" lon="8.896165510802776"><ele>41.0</ele><time>2026-05-01T08:15:11.967Z</time></trkpt><trkpt lat="40.82538603074109" lon="8.896112993678052"><ele>41.0</ele><time>2026-05-01T08:15:12.967Z</time></trkpt><trkpt lat="40.82528438854629" lon="8.896067939936893"><ele>41.0</ele><time>2026-05-01T08:15:13.967Z</time></trkpt><trkpt lat="40.82519759508491" lon="8.896033383587001"><ele>41.0</ele><time>2026-05-01T08:15:14.967Z</time></trkpt><trkpt lat="40.8251133090072" lon="8.895993841230945"><ele>41.0</ele><time>2026-05-01T08:15:15.967Z</time></trkpt><trkpt lat="40.82504486575317" lon="8.895962805267684"><ele>41.0</ele><time>2026-05-01T08:15:16.967Z</time></trkpt><trkpt lat="40.824984366335755" lon="8.895934545271949"><ele>41.0</ele><time>2026-05-01T08:15:17.967Z</time></trkpt><trkpt lat="40.824929173872945" lon="8.895872293057575"><ele>41.0</ele><time>2026-05-01T08:15:20.967Z</time></trkpt><trkpt lat="40.82497666795575" lon="8.895740220528575"><ele>41.0</ele><time>2026-05-01T08:15:23.967Z</time></trkpt><trkpt lat="40.82504142328605" lon="8.895644389236063"><ele>41.0</ele><time>2026-05-01T08:15:24.967Z</time></trkpt><trkpt lat="40.8251086142951" lon="8.895532195821689"><ele>41.0</ele><time>2026-05-01T08:15:25.967Z</time></trkpt><trkpt lat="40.82517238841073" lon="8.89540786181364"><ele>41.0</ele><time>2026-05-01T08:15:26.967Z</time></trkpt><trkpt lat="40.82524322922115" lon="8.895275735720364"><ele>40.8</ele><time>2026-05-01T08:15:27.967Z</time></trkpt><trkpt lat="40.825306537791846" lon="8.895154295287906"><ele>40.599999999999994</ele><time>2026-05-01T08:15:28.967Z</time></trkpt><trkpt lat="40.825373400329255" lon="8.895032219666776"><ele>40.4</ele><time>2026-05-01T08:15:29.967Z</time></trkpt><trkpt lat="40.82544344352612" lon="8.894920281208552"><ele>40.2</ele><time>2026-05-01T08:15:30.967Z</time></trkpt><trkpt lat="40.82551880328703" lon="8.894807806128993"><ele>40.0</ele><time>2026-05-01T08:15:31.967Z</time></trkpt><trkpt lat="40.82559398067071" lon="8.894699357754542"><ele>40.0</ele><time>2026-05-01T08:15:32.967Z</time></trkpt><trkpt lat="40.825672067849744" lon="8.894606282813744"><ele>40.0</ele><time>2026-05-01T08:15:33.967Z</time></trkpt><trkpt lat="40.825752863409605" lon="8.89452415766416"><ele>40.0</ele><time>2026-05-01T08:15:34.967Z</time></trkpt><trkpt lat="40.825834438062884" lon="8.894448268141325"><ele>40.0</ele><time>2026-05-01T08:15:35.967Z</time></trkpt><trkpt lat="40.82591721147942" lon="8.894364911022505"><ele>40.0</ele><time>2026-05-01T08:15:36.967Z</time></trkpt><trkpt lat="40.82599669385629" lon="8.894300064702731"><ele>41.16666666666667</ele><time>2026-05-01T08:15:37.967Z</time></trkpt><trkpt lat="40.826064533843564" lon="8.894244323874114"><ele>42.333333333333336</ele><time>2026-05-01T08:15:38.967Z</time></trkpt><trkpt lat="40.8261203681994" lon="8.894181214581884"><ele>43.5</ele><time>2026-05-01T08:15:39.967Z</time></trkpt><trkpt lat="40.82616725855362" lon="8.894115703469318"><ele>44.666666666666664</ele><time>2026-05-01T08:15:40.967Z</time></trkpt><trkpt lat="40.82620119156879" lon="8.89403735060601"><ele>45.83333333333333</ele><time>2026-05-01T08:15:41.967Z</time></trkpt><trkpt lat="40.8262158814792" lon="8.893896881852354"><ele>47.0</ele><time>2026-05-01T08:15:43.967Z</time></trkpt><trkpt lat="40.82614847460514" lon="8.893764254705257"><ele>47.0</ele><time>2026-05-01T08:15:45.967Z</time></trkpt><trkpt lat="40.82609901621517" lon="8.893687622691834"><ele>47.0</ele><time>2026-05-01T08:15:46.967Z</time></trkpt><trkpt lat="40.82603758183873" lon="8.893601900228521"><ele>47.0</ele><time>2026-05-01T08:15:47.967Z</time></trkpt><trkpt lat="40.82596864741986" lon="8.893511329560015"><ele>47.0</ele><time>2026-05-01T08:15:48.967Z</time></trkpt><trkpt lat="40.82590662368572" lon="8.893402278329404"><ele>47.0</ele><time>2026-05-01T08:15:49.967Z</time></trkpt><trkpt lat="40.8258272724648" lon="8.89329712200124"><ele>47.5</ele><time>2026-05-01T08:15:50.967Z</time></trkpt><trkpt lat="40.82574557913103" lon="8.893190322915661"><ele>48.0</ele><time>2026-05-01T08:15:51.967Z</time></trkpt><trkpt lat="40.82566330477941" lon="8.893082764155725"><ele>48.5</ele><time>2026-05-01T08:15:52.967Z</time></trkpt><trkpt lat="40.82558367384041" lon="8.892979365707374"><ele>49.0</ele><time>2026-05-01T08:15:53.967Z</time></trkpt><trkpt lat="40.82549623516742" lon="8.892869591320872"><ele>49.0</ele><time>2026-05-01T08:15:54.967Z</time></trkpt><trkpt lat="40.82540236954272" lon="8.892749064881736"><ele>49.0</ele><time>2026-05-01T08:15:55.967Z</time></trkpt><trkpt lat="40.82530858420332" lon="8.892632874118055"><ele>49.0</ele><time>2026-05-01T08:15:56.967Z</time></trkpt><trkpt lat="40.82521742899671" lon="8.892530075962107"><ele>49.0</ele><time>2026-05-01T08:15:57.967Z</time></trkpt><trkpt lat="40.825125708356" lon="8.892428857621727"><ele>48.400000000000006</ele><time>2026-05-01T08:15:58.967Z</time></trkpt><trkpt lat="40.82504439251702" lon="8.892333116826464"><ele>47.8</ele><time>2026-05-01T08:15:59.967Z</time></trkpt><trkpt lat="40.82496860903015" lon="8.892240523729518"><ele>47.2</ele><time>2026-05-01T08:16:00.967Z</time></trkpt><trkpt lat="40.82490259862415" lon="8.892134295433248"><ele>46.599999999999994</ele><time>2026-05-01T08:16:01.967Z</time></trkpt><trkpt lat="40.824839311008475" lon="8.892023038165453"><ele>46.0</ele><time>2026-05-01T08:16:02.967Z</time></trkpt><trkpt lat="40.824777937422" lon="8.891912160212106"><ele>46.0</ele><time>2026-05-01T08:16:03.967Z</time></trkpt><trkpt lat="40.82473140408744" lon="8.891792829697033"><ele>46.0</ele><time>2026-05-01T08:16:04.967Z</time></trkpt><trkpt lat="40.82468899627172" lon="8.891663687889421"><ele>46.0</ele><time>2026-05-01T08:16:05.967Z</time></trkpt><trkpt lat="40.82466509932439" lon="8.891528890320403"><ele>46.0</ele><time>2026-05-01T08:16:06.967Z</time></trkpt><trkpt lat="40.82463756806164" lon="8.891385141419018"><ele>46.0</ele><time>2026-05-01T08:16:07.967Z</time></trkpt><trkpt lat="40.824621074507505" lon="8.891237021209935"><ele>47.75</ele><time>2026-05-01T08:16:08.967Z</time></trkpt><trkpt lat="40.82461996931281" lon="8.891083531605968"><ele>49.5</ele><time>2026-05-01T08:16:09.967Z</time></trkpt><trkpt lat="40.824611183792726" lon="8.890921667116725"><ele>51.25</ele><time>2026-05-01T08:16:10.967Z</time></trkpt><trkpt lat="40.82461328309852" lon="8.890757244086025"><ele>53.0</ele><time>2026-05-01T08:16:11.967Z</time></trkpt><trkpt lat="40.82462070258215" lon="8.890592859144322"><ele>53.75</ele><time>2026-05-01T08:16:12.967Z</time></trkpt><trkpt lat="40.824632426912316" lon="8.890423916623591"><ele>54.5</ele><time>2026-05-01T08:16:13.967Z</time></trkpt><trkpt lat="40.824641443710114" lon="8.890259069717217"><ele>55.25</ele><time>2026-05-01T08:16:14.967Z</time></trkpt><trkpt lat="40.824663383733" lon="8.89010666910179"><ele>56.0</ele><time>2026-05-01T08:16:15.966Z</time></trkpt><trkpt lat="40.824701297214915" lon="8.889931061427802"><ele>56.0</ele><time>2026-05-01T08:16:16.965Z</time></trkpt><trkpt lat="40.824779862445396" lon="8.889750917022733"><ele>56.0</ele><time>2026-05-01T08:16:17.965Z</time></trkpt><trkpt lat="40.824852838581904" lon="8.88956213010582"><ele>56.0</ele><time>2026-05-01T08:16:18.965Z</time></trkpt><trkpt lat="40.82493484918963" lon="8.889332262046185"><ele>55.25</ele><time>2026-05-01T08:16:19.965Z</time></trkpt><trkpt lat="40.82495970780654" lon="8.88921188591517"><ele>54.5</ele><time>2026-05-01T08:16:21.965Z</time></trkpt><trkpt lat="40.82501825907453" lon="8.889045263752791"><ele>53.75</ele><time>2026-05-01T08:16:22.965Z</time></trkpt><trkpt lat="40.825073926276275" lon="8.888876225771144"><ele>53.0</ele><time>2026-05-01T08:16:23.965Z</time></trkpt><trkpt lat="40.825127005433984" lon="8.888711002965076"><ele>53.4</ele><time>2026-05-01T08:16:24.965Z</time></trkpt><trkpt lat="40.825170035133596" lon="8.888542088285442"><ele>53.8</ele><time>2026-05-01T08:16:25.965Z</time></trkpt><trkpt lat="40.82519668311699" lon="8.888381504431704"><ele>54.2</ele><time>2026-05-01T08:16:26.965Z</time></trkpt><trkpt lat="40.82523227982282" lon="8.888251975042925"><ele>54.6</ele><time>2026-05-01T08:16:27.965Z</time></trkpt><trkpt lat="40.82526651381759" lon="8.888160359742155"><ele>55.0</ele><time>2026-05-01T08:16:28.965Z</time></trkpt><trkpt lat="40.825341252364666" lon="8.88809910722624"><ele>55.0</ele><time>2026-05-01T08:16:30.965Z</time></trkpt><trkpt lat="40.825440902914714" lon="8.888124172338195"><ele>55.0</ele><time>2026-05-01T08:16:32.965Z</time></trkpt><trkpt lat="40.82553890805659" lon="8.888230126466764"><ele>55.0</ele><time>2026-05-01T08:16:34.965Z</time></trkpt><trkpt lat="40.825550367138426" lon="8.888338559398852"><ele>55.0</ele><time>2026-05-01T08:16:35.965Z</time></trkpt><trkpt lat="40.82561385376826" lon="8.888396795420494"><ele>55.0</ele><time>2026-05-01T08:16:36.965Z</time></trkpt><trkpt lat="40.82570112233434" lon="8.88847518349375"><ele>54.99999999999999</ele><time>2026-05-01T08:16:38.965Z</time></trkpt><trkpt lat="40.8257609483501" lon="8.888430596058226"><ele>55.0</ele><time>2026-05-01T08:16:39.965Z</time></trkpt><trkpt lat="40.82586953378135" lon="8.88834362766098"><ele>55.0</ele><time>2026-05-01T08:16:41.965Z</time></trkpt><trkpt lat="40.825928312866" lon="8.888285752783839"><ele>55.0</ele><time>2026-05-01T08:16:42.965Z</time></trkpt><trkpt lat="40.825985060514064" lon="8.888227224775608"><ele>54.99999999999999</ele><time>2026-05-01T08:16:43.965Z</time></trkpt><trkpt lat="40.82605137987131" lon="8.888158241183268"><ele>55.0</ele><time>2026-05-01T08:16:44.965Z</time></trkpt><trkpt lat="40.82611584722947" lon="8.88809870593862"><ele>56.8</ele><time>2026-05-01T08:16:45.965Z</time></trkpt><trkpt lat="40.82618702677694" lon="8.888030046591648"><ele>58.6</ele><time>2026-05-01T08:16:46.965Z</time></trkpt><trkpt lat="40.826264911125826" lon="8.887950653197182"><ele>60.400000000000006</ele><time>2026-05-01T08:16:47.965Z</time></trkpt><trkpt lat="40.826355399308476" lon="8.887876253202066"><ele>62.2</ele><time>2026-05-01T08:16:48.965Z</time></trkpt><trkpt lat="40.82641114813958" lon="8.887763268951593"><ele>64.0</ele><time>2026-05-01T08:16:49.965Z</time></trkpt><trkpt lat="40.82647026116712" lon="8.88766050008157"><ele>64.60000000000001</ele><time>2026-05-01T08:16:50.965Z</time></trkpt><trkpt lat="40.8265270835911" lon="8.887551178807897"><ele>65.2</ele><time>2026-05-01T08:16:51.965Z</time></trkpt><trkpt lat="40.82658724709537" lon="8.887432598968982"><ele>65.80000000000001</ele><time>2026-05-01T08:16:52.965Z</time></trkpt><trkpt lat="40.826653139889885" lon="8.88730794587518"><ele>66.4</ele><time>2026-05-01T08:16:53.965Z</time></trkpt><trkpt lat="40.82672306578357" lon="8.887191638519118"><ele>67.0</ele><time>2026-05-01T08:16:54.965Z</time></trkpt><trkpt lat="40.82678204966332" lon="8.887078786997272"><ele>69.6</ele><time>2026-05-01T08:16:55.965Z</time></trkpt><trkpt lat="40.82685522012623" lon="8.88698999627156"><ele>72.2</ele><time>2026-05-01T08:16:56.965Z</time></trkpt><trkpt lat="40.82691920283661" lon="8.886904351494389"><ele>74.8</ele><time>2026-05-01T08:16:57.965Z</time></trkpt><trkpt lat="40.82698205994862" lon="8.886823694760901"><ele>77.4</ele><time>2026-05-01T08:16:58.965Z</time></trkpt><trkpt lat="40.82703487064689" lon="8.886720167282881"><ele>80.0</ele><time>2026-05-01T08:16:59.965Z</time></trkpt><trkpt lat="40.82711116246141" lon="8.886623349240287"><ele>80.0</ele><time>2026-05-01T08:17:00.965Z</time></trkpt><trkpt lat="40.82718354054599" lon="8.88651988428927"><ele>80.0</ele><time>2026-05-01T08:17:01.965Z</time></trkpt><trkpt lat="40.82723984664959" lon="8.886383464494516"><ele>80.0</ele><time>2026-05-01T08:17:02.965Z</time></trkpt><trkpt lat="40.8273044337633" lon="8.886233632602138"><ele>80.0</ele><time>2026-05-01T08:17:03.965Z</time></trkpt><trkpt lat="40.82736052096519" lon="8.886095407444937"><ele>80.0</ele><time>2026-05-01T08:17:04.965Z</time></trkpt><trkpt lat="40.82742117230654" lon="8.885955827549406"><ele>80.0</ele><time>2026-05-01T08:17:05.965Z</time></trkpt><trkpt lat="40.82749631102834" lon="8.885849610245248"><ele>80.0</ele><time>2026-05-01T08:17:06.965Z</time></trkpt><trkpt lat="40.82756469166343" lon="8.885738773787923"><ele>80.0</ele><time>2026-05-01T08:17:07.965Z</time></trkpt><trkpt lat="40.82765372966877" lon="8.885641478301428"><ele>81.0</ele><time>2026-05-01T08:17:08.965Z</time></trkpt><trkpt lat="40.82773873861159" lon="8.88556204607174"><ele>82.0</ele><time>2026-05-01T08:17:09.965Z</time></trkpt><trkpt lat="40.8278131690353" lon="8.885496559524624"><ele>83.0</ele><time>2026-05-01T08:17:10.965Z</time></trkpt><trkpt lat="40.82788674823584" lon="8.885418677478757"><ele>84.0</ele><time>2026-05-01T08:17:11.965Z</time></trkpt><trkpt lat="40.82796152986818" lon="8.885331212629575"><ele>85.0</ele><time>2026-05-01T08:17:12.965Z</time></trkpt><trkpt lat="40.82803383965996" lon="8.885234890797468"><ele>85.0</ele><time>2026-05-01T08:17:13.965Z</time></trkpt><trkpt lat="40.828104481206616" lon="8.88513631038253"><ele>85.0</ele><time>2026-05-01T08:17:14.965Z</time></trkpt><trkpt lat="40.82816826201886" lon="8.885049367201388"><ele>85.0</ele><time>2026-05-01T08:17:15.965Z</time></trkpt><trkpt lat="40.82822420266158" lon="8.884973375825206"><ele>85.0</ele><time>2026-05-01T08:17:16.965Z</time></trkpt><trkpt lat="40.82827082957108" lon="8.884915210507"><ele>85.0</ele><time>2026-05-01T08:17:17.965Z</time></trkpt><trkpt lat="40.828328534412094" lon="8.884861714515694"><ele>85.0</ele><time>2026-05-01T08:17:19.965Z</time></trkpt><trkpt lat="40.828393285388366" lon="8.88479891911424"><ele>85.4</ele><time>2026-05-01T08:17:32.965Z</time></trkpt><trkpt lat="40.828495943962224" lon="8.884797942810682"><ele>85.8</ele><time>2026-05-01T08:17:34.965Z</time></trkpt><trkpt lat="40.82857510468073" lon="8.884833674910878"><ele>86.19999999999999</ele><time>2026-05-01T08:17:37.965Z</time></trkpt><trkpt lat="40.82861287909056" lon="8.884743847690036"><ele>86.6</ele><time>2026-05-01T08:17:38.965Z</time></trkpt><trkpt lat="40.82864912789761" lon="8.884663404014356"><ele>87.0</ele><time>2026-05-01T08:17:39.965Z</time></trkpt><trkpt lat="40.82870970636373" lon="8.8845305730586"><ele>87.0</ele><time>2026-05-01T08:17:41.965Z</time></trkpt><trkpt lat="40.82874213859895" lon="8.88443514970212"><ele>87.0</ele><time>2026-05-01T08:17:43.965Z</time></trkpt><trkpt lat="40.82882415711397" lon="8.884347813177225"><ele>87.0</ele><time>2026-05-01T08:17:45.965Z</time></trkpt><trkpt lat="40.828917356164034" lon="8.884253481287969"><ele>87.0</ele><time>2026-05-01T08:17:47.965Z</time></trkpt><trkpt lat="40.82897282770088" lon="8.884195484325002"><ele>87.0</ele><time>2026-05-01T08:17:48.965Z</time></trkpt><trkpt lat="40.829025047972664" lon="8.88414785550722"><ele>87.0</ele><time>2026-05-01T08:17:49.965Z</time></trkpt><trkpt lat="40.82912849254611" lon="8.884125687354027"><ele>87.0</ele><time>2026-05-01T08:17:51.965Z</time></trkpt><trkpt lat="40.829184842676675" lon="8.88407207074169"><ele>87.0</ele><time>2026-05-01T08:17:55.965Z</time></trkpt><trkpt lat="40.82925912482397" lon="8.884047090814455"><ele>87.0</ele><time>2026-05-01T08:18:07.965Z</time></trkpt><trkpt lat="40.82932240038775" lon="8.88403232378938"><ele>87.0</ele><time>2026-05-01T08:18:09.965Z</time></trkpt><trkpt lat="40.8293841735265" lon="8.88398361864886"><ele>87.0</ele><time>2026-05-01T08:18:13.965Z</time></trkpt><trkpt lat="40.829443708744286" lon="8.88392808995283"><ele>87.0</ele><time>2026-05-01T08:18:15.965Z</time></trkpt><trkpt lat="40.829545570335775" lon="8.883941597691502"><ele>87.0</ele><time>2026-05-01T08:18:17.965Z</time></trkpt><trkpt lat="40.82928699869786" lon="8.884171631740994"><ele>87.0</ele><time>2026-05-01T08:18:18.965Z</time></trkpt><trkpt lat="40.82932253053849" lon="8.884269818434534"><ele>87.0</ele><time>2026-05-01T08:18:20.965Z</time></trkpt><trkpt lat="40.82935451288021" lon="8.884366032393062"><ele>87.0</ele><time>2026-05-01T08:18:22.963Z</time></trkpt><trkpt lat="40.82938708099169" lon="8.884463006221662"><ele>87.0</ele><time>2026-05-01T08:18:24.963Z</time></trkpt><trkpt lat="40.82941931446861" lon="8.884561556745124"><ele>87.0</ele><time>2026-05-01T08:18:27.963Z</time></trkpt><trkpt lat="40.8294530918735" lon="8.884667223923115"><ele>87.0</ele><time>2026-05-01T08:18:30.964Z</time></trkpt><trkpt lat="40.82948455173096" lon="8.884766254294458"><ele>87.0</ele><time>2026-05-01T08:18:32.964Z</time></trkpt><trkpt lat="40.82950724394359" lon="8.88484404104963"><ele>87.0</ele><time>2026-05-01T08:18:33.963Z</time></trkpt><trkpt lat="40.82954333002529" lon="8.884978324010913"><ele>87.0</ele><time>2026-05-01T08:18:35.963Z</time></trkpt><trkpt lat="40.829564887573255" lon="8.885064837579693"><ele>87.0</ele><time>2026-05-01T08:18:36.963Z</time></trkpt><trkpt lat="40.82961199871832" lon="8.885215255612277"><ele>87.0</ele><time>2026-05-01T08:18:38.963Z</time></trkpt><trkpt lat="40.82964611340375" lon="8.88529508821607"><ele>87.0</ele><time>2026-05-01T08:18:39.963Z</time></trkpt><trkpt lat="40.83011286140785" lon="8.884991274316583"><ele>87.0</ele><time>2026-05-01T08:18:43.963Z</time></trkpt><trkpt lat="40.8302030887141" lon="8.884931407306482"><ele>87.0</ele><time>2026-05-01T08:18:45.963Z</time></trkpt><trkpt lat="40.830264973304494" lon="8.884892115452859"><ele>87.0</ele><time>2026-05-01T08:18:46.963Z</time></trkpt><trkpt lat="40.83034209769014" lon="8.884844624800728"><ele>87.0</ele><time>2026-05-01T08:18:47.963Z</time></trkpt><trkpt lat="40.83040948515213" lon="8.884768415048688"><ele>87.0</ele><time>2026-05-01T08:18:48.963Z</time></trkpt><trkpt lat="40.83049098129529" lon="8.884705175050483"><ele>87.0</ele><time>2026-05-01T08:18:49.963Z</time></trkpt><trkpt lat="40.83057681072306" lon="8.884655830205332"><ele>87.0</ele><time>2026-05-01T08:18:50.963Z</time></trkpt><trkpt lat="40.83064928002229" lon="8.884571215117184"><ele>87.0</ele><time>2026-05-01T08:18:51.963Z</time></trkpt><trkpt lat="40.830720489922285" lon="8.884490697982981"><ele>87.0</ele><time>2026-05-01T08:18:52.963Z</time></trkpt><trkpt lat="40.83079866134422" lon="8.884428686796648"><ele>87.0</ele><time>2026-05-01T08:18:53.963Z</time></trkpt><trkpt lat="40.830874367178744" lon="8.88437553703592"><ele>87.0</ele><time>2026-05-01T08:18:54.963Z</time></trkpt><trkpt lat="40.830941390125226" lon="8.884322312854954"><ele>87.0</ele><time>2026-05-01T08:18:55.963Z</time></trkpt><trkpt lat="40.8310040849896" lon="8.884273764256799"><ele>87.8</ele><time>2026-05-01T08:18:56.963Z</time></trkpt><trkpt lat="40.83106126661357" lon="8.88423361814543"><ele>88.6</ele><time>2026-05-01T08:18:57.963Z</time></trkpt><trkpt lat="40.83116497634841" lon="8.884150536120313"><ele>89.39999999999999</ele><time>2026-05-01T08:18:59.963Z</time></trkpt><trkpt lat="40.83125346748466" lon="8.884069471202475"><ele>90.19999999999999</ele><time>2026-05-01T08:19:01.963Z</time></trkpt><trkpt lat="40.83132511526321" lon="8.884101704053906"><ele>91.0</ele><time>2026-05-01T08:19:03.963Z</time></trkpt><trkpt lat="40.83140453401089" lon="8.884131665393685"><ele>91.0</ele><time>2026-05-01T08:19:05.963Z</time></trkpt><trkpt lat="40.83149255952309" lon="8.88408672992877"><ele>91.0</ele><time>2026-05-01T08:19:07.963Z</time></trkpt><trkpt lat="40.831548807404005" lon="8.884049195507401"><ele>91.0</ele><time>2026-05-01T08:19:08.963Z</time></trkpt><trkpt lat="40.831663717524215" lon="8.883999304915132"><ele>91.0</ele><time>2026-05-01T08:19:10.963Z</time></trkpt><trkpt lat="40.831724061645566" lon="8.883960880258291"><ele>91.0</ele><time>2026-05-01T08:19:11.963Z</time></trkpt><trkpt lat="40.831789338088804" lon="8.883919314907763"><ele>91.0</ele><time>2026-05-01T08:19:12.963Z</time></trkpt><trkpt lat="40.83186120503936" lon="8.883873552982207"><ele>91.16666666666666</ele><time>2026-05-01T08:19:13.963Z</time></trkpt><trkpt lat="40.83193405933603" lon="8.883827839184086"><ele>91.33333333333333</ele><time>2026-05-01T08:19:14.963Z</time></trkpt><trkpt lat="40.832014083008666" lon="8.883779516430943"><ele>91.5</ele><time>2026-05-01T08:19:15.963Z</time></trkpt><trkpt lat="40.83209495570611" lon="8.883730879192168"><ele>91.66666666666667</ele><time>2026-05-01T08:19:16.963Z</time></trkpt><trkpt lat="40.8321687055772" lon="8.88368595058195"><ele>91.83333333333334</ele><time>2026-05-01T08:19:17.963Z</time></trkpt><trkpt lat="40.83223837762368" lon="8.883642420966886"><ele>92.0</ele><time>2026-05-01T08:19:18.963Z</time></trkpt><trkpt lat="40.83230383327963" lon="8.883601525680344"><ele>92.0</ele><time>2026-05-01T08:19:19.963Z</time></trkpt><trkpt lat="40.832358590442915" lon="8.883550499684326"><ele>92.0</ele><time>2026-05-01T08:19:20.963Z</time></trkpt><trkpt lat="40.83243705669176" lon="8.88351675244043"><ele>92.0</ele><time>2026-05-01T08:19:21.963Z</time></trkpt><trkpt lat="40.83250623856655" lon="8.883465438647875"><ele>92.0</ele><time>2026-05-01T08:19:22.963Z</time></trkpt><trkpt lat="40.832578317557704" lon="8.883400874711876"><ele>92.0</ele><time>2026-05-01T08:19:23.963Z</time></trkpt><trkpt lat="40.83265929008337" lon="8.883331807769567"><ele>92.0</ele><time>2026-05-01T08:19:24.963Z</time></trkpt><trkpt lat="40.83273064046849" lon="8.883261114450093"><ele>93.0</ele><time>2026-05-01T08:19:25.963Z</time></trkpt><trkpt lat="40.832804743249035" lon="8.883195680404844"><ele>94.0</ele><time>2026-05-01T08:19:26.964Z</time></trkpt><trkpt lat="40.83289851104588" lon="8.883140073829463"><ele>95.0</ele><time>2026-05-01T08:19:27.964Z</time></trkpt><trkpt lat="40.83298285247301" lon="8.883067168414037"><ele>96.0</ele><time>2026-05-01T08:19:28.964Z</time></trkpt><trkpt lat="40.83306409473125" lon="8.88299694161774"><ele>97.0</ele><time>2026-05-01T08:19:29.964Z</time></trkpt><trkpt lat="40.83313940297709" lon="8.882910661553034"><ele>97.0</ele><time>2026-05-01T08:19:30.964Z</time></trkpt><trkpt lat="40.83323473679652" lon="8.882855398621789"><ele>97.0</ele><time>2026-05-01T08:19:31.964Z</time></trkpt><trkpt lat="40.833322325329014" lon="8.882782451898679"><ele>97.0</ele><time>2026-05-01T08:19:32.964Z</time></trkpt><trkpt lat="40.83341721839776" lon="8.882701540100559"><ele>97.0</ele><time>2026-05-01T08:19:33.964Z</time></trkpt><trkpt lat="40.83350000819339" lon="8.882609719090413"><ele>97.0</ele><time>2026-05-01T08:19:34.964Z</time></trkpt><trkpt lat="40.83359677070293" lon="8.882527805813359"><ele>97.0</ele><time>2026-05-01T08:19:35.964Z</time></trkpt><trkpt lat="40.83369756852815" lon="8.882448033000747"><ele>97.0</ele><time>2026-05-01T08:19:36.964Z</time></trkpt><trkpt lat="40.83379571952242" lon="8.882367979875191"><ele>97.0</ele><time>2026-05-01T08:19:37.964Z</time></trkpt><trkpt lat="40.83389041891261" lon="8.882293399762071"><ele>97.0</ele><time>2026-05-01T08:19:38.964Z</time></trkpt><trkpt lat="40.83398553602608" lon="8.88221478144354"><ele>97.0</ele><time>2026-05-01T08:19:39.964Z</time></trkpt><trkpt lat="40.83407411066618" lon="8.88212148509806"><ele>97.0</ele><time>2026-05-01T08:19:40.964Z</time></trkpt><trkpt lat="40.834155500765405" lon="8.882014019600438"><ele>97.0</ele><time>2026-05-01T08:19:41.964Z</time></trkpt><trkpt lat="40.83422692307629" lon="8.881893254372194"><ele>97.0</ele><time>2026-05-01T08:19:42.964Z</time></trkpt><trkpt lat="40.83432122174493" lon="8.881795719651716"><ele>98.0</ele><time>2026-05-01T08:19:43.964Z</time></trkpt><trkpt lat="40.834407726868" lon="8.881685797361673"><ele>99.0</ele><time>2026-05-01T08:19:44.964Z</time></trkpt><trkpt lat="40.83449639770496" lon="8.881577390858526"><ele>100.0</ele><time>2026-05-01T08:19:45.964Z</time></trkpt><trkpt lat="40.83458454295172" lon="8.881466556015795"><ele>101.0</ele><time>2026-05-01T08:19:46.964Z</time></trkpt><trkpt lat="40.83466768939999" lon="8.881332884209742"><ele>100.99999999999999</ele><time>2026-05-01T08:19:47.964Z</time></trkpt><trkpt lat="40.83474007448303" lon="8.88125193410982"><ele>101.0</ele><time>2026-05-01T08:19:48.964Z</time></trkpt><trkpt lat="40.834794615275214" lon="8.881202013822888"><ele>101.0</ele><time>2026-05-01T08:19:50.964Z</time></trkpt><trkpt lat="40.83484494891514" lon="8.88113862343639"><ele>101.0</ele><time>2026-05-01T08:19:54.964Z</time></trkpt><trkpt lat="40.83491213945328" lon="8.88105400339457"><ele>100.99999999999999</ele><time>2026-05-01T08:19:56.964Z</time></trkpt><trkpt lat="40.834966434026356" lon="8.880985624561747"><ele>101.0</ele><time>2026-05-01T08:19:57.964Z</time></trkpt><trkpt lat="40.83503402372948" lon="8.880878886574838"><ele>101.75</ele><time>2026-05-01T08:19:58.964Z</time></trkpt><trkpt lat="40.83511207585769" lon="8.88077844158952"><ele>102.5</ele><time>2026-05-01T08:19:59.964Z</time></trkpt><trkpt lat="40.835186227282826" lon="8.880598166479365"><ele>103.25</ele><time>2026-05-01T08:20:00.964Z</time></trkpt><trkpt lat="40.83524796741484" lon="8.880448258694667"><ele>104.0</ele><time>2026-05-01T08:20:01.964Z</time></trkpt><trkpt lat="40.835313662601386" lon="8.88025085400935"><ele>103.0</ele><time>2026-05-01T08:20:02.964Z</time></trkpt><trkpt lat="40.835386074966806" lon="8.88010942316958"><ele>102.0</ele><time>2026-05-01T08:20:03.964Z</time></trkpt><trkpt lat="40.835463342415565" lon="8.879981736093203"><ele>101.0</ele><time>2026-05-01T08:20:04.964Z</time></trkpt><trkpt lat="40.83553934600907" lon="8.879840195909127"><ele>100.0</ele><time>2026-05-01T08:20:05.964Z</time></trkpt><trkpt lat="40.835616874492864" lon="8.879694325708327"><ele>100.0</ele><time>2026-05-01T08:20:06.964Z</time></trkpt><trkpt lat="40.83568986421023" lon="8.879556710624579"><ele>100.0</ele><time>2026-05-01T08:20:07.964Z</time></trkpt><trkpt lat="40.8357683150311" lon="8.879419201953786"><ele>100.0</ele><time>2026-05-01T08:20:08.964Z</time></trkpt><trkpt lat="40.83584559253893" lon="8.879279483846156"><ele>100.0</ele><time>2026-05-01T08:20:09.964Z</time></trkpt><trkpt lat="40.835941387404254" lon="8.879118649527827"><ele>100.66666666666667</ele><time>2026-05-01T08:20:10.964Z</time></trkpt><trkpt lat="40.83604934066984" lon="8.87895194939032"><ele>101.33333333333334</ele><time>2026-05-01T08:20:11.964Z</time></trkpt><trkpt lat="40.836170024512896" lon="8.878780584431507"><ele>102.0</ele><time>2026-05-01T08:20:12.964Z</time></trkpt><trkpt lat="40.83630033997521" lon="8.87862443055065"><ele>102.0</ele><time>2026-05-01T08:20:13.964Z</time></trkpt><trkpt lat="40.83642949535278" lon="8.878465245179884"><ele>102.0</ele><time>2026-05-01T08:20:14.964Z</time></trkpt><trkpt lat="40.83655071991549" lon="8.878311557329885"><ele>102.0</ele><time>2026-05-01T08:20:15.964Z</time></trkpt><trkpt lat="40.83639662645017" lon="8.87844182871305"><ele>103.5</ele><time>2026-05-01T08:20:16.964Z</time></trkpt><trkpt lat="40.836484142169965" lon="8.8783118457005"><ele>105.0</ele><time>2026-05-01T08:20:17.964Z</time></trkpt><trkpt lat="40.83657248092678" lon="8.87818265631995"><ele>106.5</ele><time>2026-05-01T08:20:18.964Z</time></trkpt><trkpt lat="40.83665815099257" lon="8.878048554385575"><ele>108.0</ele><time>2026-05-01T08:20:19.964Z</time></trkpt><trkpt lat="40.83673870834861" lon="8.877919245518079"><ele>108.5</ele><time>2026-05-01T08:20:20.964Z</time></trkpt><trkpt lat="40.836814343444495" lon="8.877789878619984"><ele>109.0</ele><time>2026-05-01T08:20:21.964Z</time></trkpt><trkpt lat="40.83689619729824" lon="8.877665066054492"><ele>109.5</ele><time>2026-05-01T08:20:22.964Z</time></trkpt><trkpt lat="40.836987730933764" lon="8.877555771973258"><ele>110.0</ele><time>2026-05-01T08:20:23.964Z</time></trkpt><trkpt lat="40.83708495822908" lon="8.877448526527731"><ele>110.0</ele><time>2026-05-01T08:20:24.964Z</time></trkpt><trkpt lat="40.83718915512755" lon="8.877337818680617"><ele>110.0</ele><time>2026-05-01T08:20:25.964Z</time></trkpt><trkpt lat="40.837298555137764" lon="8.877220747795112"><ele>110.0</ele><time>2026-05-01T08:20:26.964Z</time></trkpt><trkpt lat="40.837407037335325" lon="8.877100852222707"><ele>110.0</ele><time>2026-05-01T08:20:27.962Z</time></trkpt><trkpt lat="40.83751918035975" lon="8.876981021925136"><ele>110.0</ele><time>2026-05-01T08:20:28.961Z</time></trkpt><trkpt lat="40.837631531105636" lon="8.876855623414409"><ele>110.0</ele><time>2026-05-01T08:20:29.961Z</time></trkpt><trkpt lat="40.83773854704123" lon="8.876738071751552"><ele>110.0</ele><time>2026-05-01T08:20:30.962Z</time></trkpt><trkpt lat="40.837854116119445" lon="8.876609257766379"><ele>110.0</ele><time>2026-05-01T08:20:31.961Z</time></trkpt><trkpt lat="40.83796493648648" lon="8.876477519723824"><ele>115.0</ele><time>2026-05-01T08:20:32.961Z</time></trkpt><trkpt lat="40.83807835264204" lon="8.876342233023614"><ele>120.0</ele><time>2026-05-01T08:20:33.962Z</time></trkpt><trkpt lat="40.83818535320731" lon="8.87620309260704"><ele>125.0</ele><time>2026-05-01T08:20:34.962Z</time></trkpt><trkpt lat="40.83828841650801" lon="8.876063928322708"><ele>124.8</ele><time>2026-05-01T08:20:35.962Z</time></trkpt><trkpt lat="40.8383893282817" lon="8.875932394822001"><ele>124.6</ele><time>2026-05-01T08:20:36.961Z</time></trkpt><trkpt lat="40.83848054269288" lon="8.875831395629303"><ele>124.4</ele><time>2026-05-01T08:20:37.961Z</time></trkpt><trkpt lat="40.83855283837217" lon="8.875782152777672"><ele>124.2</ele><time>2026-05-01T08:20:38.961Z</time></trkpt><trkpt lat="40.83863950581989" lon="8.875753643387753"><ele>124.0</ele><time>2026-05-01T08:20:39.961Z</time></trkpt><trkpt lat="40.838738143352685" lon="8.8757880366987"><ele>124.80000000000001</ele><time>2026-05-01T08:20:40.961Z</time></trkpt><trkpt lat="40.83884429279644" lon="8.875789377801407"><ele>125.60000000000001</ele><time>2026-05-01T08:20:41.961Z</time></trkpt><trkpt lat="40.838957835427195" lon="8.875775697445851"><ele>126.4</ele><time>2026-05-01T08:20:42.961Z</time></trkpt><trkpt lat="40.83907366394275" lon="8.87579037869743"><ele>127.2</ele><time>2026-05-01T08:20:43.961Z</time></trkpt><trkpt lat="40.83917975648314" lon="8.875776466164593"><ele>128.0</ele><time>2026-05-01T08:20:44.961Z</time></trkpt><trkpt lat="40.839293715952046" lon="8.875740214100915"><ele>127.0</ele><time>2026-05-01T08:20:45.961Z</time></trkpt><trkpt lat="40.83941249216129" lon="8.875678201671665"><ele>126.0</ele><time>2026-05-01T08:20:46.961Z</time></trkpt><trkpt lat="40.839541041278814" lon="8.875613702994057"><ele>125.0</ele><time>2026-05-01T08:20:47.961Z</time></trkpt><trkpt lat="40.839678997452715" lon="8.875548069932146"><ele>124.0</ele><time>2026-05-01T08:20:48.961Z</time></trkpt><trkpt lat="40.839814623892465" lon="8.875478713030704"><ele>124.0</ele><time>2026-05-01T08:20:49.961Z</time></trkpt><trkpt lat="40.83994733749905" lon="8.875412439442558"><ele>124.0</ele><time>2026-05-01T08:20:50.961Z</time></trkpt><trkpt lat="40.840065831748134" lon="8.87535915648406"><ele>124.0</ele><time>2026-05-01T08:20:51.961Z</time></trkpt><trkpt lat="40.84016323463818" lon="8.875323940287881"><ele>124.0</ele><time>2026-05-01T08:20:52.961Z</time></trkpt><trkpt lat="40.840240266989404" lon="8.875315043391604"><ele>124.0</ele><time>2026-05-01T08:20:53.961Z</time></trkpt><trkpt lat="40.84030002340066" lon="8.875360524654605"><ele>125.0</ele><time>2026-05-01T08:20:54.961Z</time></trkpt><trkpt lat="40.84034185911259" lon="8.875430421463102"><ele>126.0</ele><time>2026-05-01T08:20:55.961Z</time></trkpt><trkpt lat="40.840412170610364" lon="8.875503001469042"><ele>127.0</ele><time>2026-05-01T08:20:56.961Z</time></trkpt><trkpt lat="40.84049098885439" lon="8.875586180370206"><ele>128.0</ele><time>2026-05-01T08:20:57.961Z</time></trkpt><trkpt lat="40.840582515955134" lon="8.875681776700045"><ele>129.0</ele><time>2026-05-01T08:20:58.961Z</time></trkpt><trkpt lat="40.84068352368504" lon="8.875780717178987"><ele>129.0</ele><time>2026-05-01T08:20:59.961Z</time></trkpt><trkpt lat="40.84079327377599" lon="8.875886421060757"><ele>129.0</ele><time>2026-05-01T08:21:00.961Z</time></trkpt><trkpt lat="40.840901591121366" lon="8.876006300733236"><ele>129.0</ele><time>2026-05-01T08:21:01.961Z</time></trkpt><trkpt lat="40.841009595650355" lon="8.876132032026307"><ele>129.0</ele><time>2026-05-01T08:21:02.961Z</time></trkpt><trkpt lat="40.84111251479114" lon="8.876240789666333"><ele>128.5</ele><time>2026-05-01T08:21:03.961Z</time></trkpt><trkpt lat="40.84122280055027" lon="8.876331091056624"><ele>128.0</ele><time>2026-05-01T08:21:04.961Z</time></trkpt><trkpt lat="40.841335618068385" lon="8.876399450731869"><ele>127.5</ele><time>2026-05-01T08:21:05.961Z</time></trkpt><trkpt lat="40.84145079999274" lon="8.876442314871582"><ele>127.0</ele><time>2026-05-01T08:21:06.961Z</time></trkpt><trkpt lat="40.841575877432" lon="8.876467843558009"><ele>127.0</ele><time>2026-05-01T08:21:07.961Z</time></trkpt><trkpt lat="40.841703372544266" lon="8.876473481463183"><ele>127.0</ele><time>2026-05-01T08:21:08.961Z</time></trkpt><trkpt lat="40.84183626438645" lon="8.876473725348093"><ele>127.0</ele><time>2026-05-01T08:21:09.961Z</time></trkpt><trkpt lat="40.84197931216279" lon="8.876485661608545"><ele>127.0</ele><time>2026-05-01T08:21:10.961Z</time></trkpt><trkpt lat="40.8421204542646" lon="8.87650076315723"><ele>127.0</ele><time>2026-05-01T08:21:11.961Z</time></trkpt><trkpt lat="40.84225095180196" lon="8.876514060504423"><ele>126.99999999999999</ele><time>2026-05-01T08:21:12.961Z</time></trkpt><trkpt lat="40.842368427649326" lon="8.876522250904857"><ele>126.99999999999999</ele><time>2026-05-01T08:21:13.961Z</time></trkpt><trkpt lat="40.84246757849213" lon="8.876513081155174"><ele>127.0</ele><time>2026-05-01T08:21:14.961Z</time></trkpt><trkpt lat="40.842551290684625" lon="8.876484819947214"><ele>127.0</ele><time>2026-05-01T08:21:15.961Z</time></trkpt><trkpt lat="40.84261677451282" lon="8.87643213630893"><ele>127.00000000000001</ele><time>2026-05-01T08:21:16.961Z</time></trkpt><trkpt lat="40.84266021319765" lon="8.87635329999146"><ele>127.0</ele><time>2026-05-01T08:21:17.961Z</time></trkpt><trkpt lat="40.842687752940215" lon="8.876269851493317"><ele>127.0</ele><time>2026-05-01T08:21:18.961Z</time></trkpt><trkpt lat="40.84269824137678" lon="8.876156088299144"><ele>127.0</ele><time>2026-05-01T08:21:19.961Z</time></trkpt><trkpt lat="40.84269112144855" lon="8.876032891186004"><ele>127.00000000000001</ele><time>2026-05-01T08:21:20.961Z</time></trkpt><trkpt lat="40.84267070969543" lon="8.875913352852198"><ele>127.0</ele><time>2026-05-01T08:21:21.961Z</time></trkpt><trkpt lat="40.84265548878832" lon="8.875779102902536"><ele>127.00000000000001</ele><time>2026-05-01T08:21:22.961Z</time></trkpt><trkpt lat="40.842646413507865" lon="8.875645779318676"><ele>127.0</ele><time>2026-05-01T08:21:23.961Z</time></trkpt><trkpt lat="40.84264947155296" lon="8.875535738327843"><ele>127.0</ele><time>2026-05-01T08:21:24.961Z</time></trkpt><trkpt lat="40.84265742626398" lon="8.87542533162352"><ele>127.0</ele><time>2026-05-01T08:21:25.961Z</time></trkpt><trkpt lat="40.84269811347151" lon="8.875333695427525"><ele>127.00000000000001</ele><time>2026-05-01T08:21:26.961Z</time></trkpt><trkpt lat="40.842745187725846" lon="8.875235748598186"><ele>127.0</ele><time>2026-05-01T08:21:27.961Z</time></trkpt><trkpt lat="40.842791158007664" lon="8.87511634160038"><ele>127.6</ele><time>2026-05-01T08:21:28.961Z</time></trkpt><trkpt lat="40.842851031555035" lon="8.874992093216317"><ele>128.2</ele><time>2026-05-01T08:21:29.961Z</time></trkpt><trkpt lat="40.84291014947177" lon="8.874875165252284"><ele>128.8</ele><time>2026-05-01T08:21:30.961Z</time></trkpt><trkpt lat="40.842975013617426" lon="8.874781911905538"><ele>129.4</ele><time>2026-05-01T08:21:31.961Z</time></trkpt><trkpt lat="40.843053423680985" lon="8.874710995515565"><ele>130.0</ele><time>2026-05-01T08:21:32.961Z</time></trkpt><trkpt lat="40.8431448634763" lon="8.874647589864635"><ele>130.0</ele><time>2026-05-01T08:21:33.961Z</time></trkpt><trkpt lat="40.84325018950149" lon="8.874597830814299"><ele>130.0</ele><time>2026-05-01T08:21:34.961Z</time></trkpt><trkpt lat="40.84336251760502" lon="8.874539425841364"><ele>130.0</ele><time>2026-05-01T08:21:35.961Z</time></trkpt><trkpt lat="40.84348288156875" lon="8.874482959786665"><ele>130.0</ele><time>2026-05-01T08:21:36.961Z</time></trkpt><trkpt lat="40.843606462358345" lon="8.874441620368207"><ele>129.25</ele><time>2026-05-01T08:21:37.961Z</time></trkpt><trkpt lat="40.843736270044104" lon="8.874424273514286"><ele>128.5</ele><time>2026-05-01T08:21:38.961Z</time></trkpt><trkpt lat="40.843870314874565" lon="8.874412316462154"><ele>127.75</ele><time>2026-05-01T08:21:39.961Z</time></trkpt><trkpt lat="40.844001148897995" lon="8.874393726870201"><ele>127.0</ele><time>2026-05-01T08:21:40.961Z</time></trkpt><trkpt lat="40.844124399058906" lon="8.874370926105058"><ele>127.0</ele><time>2026-05-01T08:21:41.961Z</time></trkpt><trkpt lat="40.84424715074108" lon="8.874348099929781"><ele>126.99999999999999</ele><time>2026-05-01T08:21:42.961Z</time></trkpt><trkpt lat="40.84436062198538" lon="8.874337479421753"><ele>126.99999999999999</ele><time>2026-05-01T08:21:43.961Z</time></trkpt><trkpt lat="40.844458843222775" lon="8.87434083955079"><ele>127.0</ele><time>2026-05-01T08:21:44.961Z</time></trkpt><trkpt lat="40.844540097626144" lon="8.874368073577205"><ele>127.0</ele><time>2026-05-01T08:21:45.961Z</time></trkpt><trkpt lat="40.844584345045746" lon="8.874466159250693"><ele>127.50000000000001</ele><time>2026-05-01T08:21:46.961Z</time></trkpt><trkpt lat="40.8446547856044" lon="8.874528236933841"><ele>128.0</ele><time>2026-05-01T08:21:47.961Z</time></trkpt><trkpt lat="40.844728245730906" lon="8.87459297562043"><ele>128.5</ele><time>2026-05-01T08:21:48.961Z</time></trkpt><trkpt lat="40.844827933169014" lon="8.874570894223643"><ele>129.0</ele><time>2026-05-01T08:21:49.961Z</time></trkpt><trkpt lat="40.844918270569316" lon="8.874586682308825"><ele>129.5</ele><time>2026-05-01T08:21:51.961Z</time></trkpt><trkpt lat="40.84490809556667" lon="8.87449179895564"><ele>130.0</ele><time>2026-05-01T08:21:54.961Z</time></trkpt><trkpt lat="40.844880367164684" lon="8.874375485032795"><ele>130.0</ele><time>2026-05-01T08:21:56.961Z</time></trkpt><trkpt lat="40.84485028468998" lon="8.87428269636118"><ele>130.0</ele><time>2026-05-01T08:21:58.961Z</time></trkpt><trkpt lat="40.8448348843663" lon="8.874199867397019"><ele>130.0</ele><time>2026-05-01T08:22:00.961Z</time></trkpt><trkpt lat="40.84493588793728" lon="8.874113043075843"><ele>130.0</ele><time>2026-05-01T08:22:05.961Z</time></trkpt><trkpt lat="40.84500941139978" lon="8.87401628907389"><ele>130.0</ele><time>2026-05-01T08:22:07.961Z</time></trkpt><trkpt lat="40.845064210458816" lon="8.873882150799709"><ele>130.33333333333334</ele><time>2026-05-01T08:22:09.961Z</time></trkpt><trkpt lat="40.84507061838676" lon="8.873767056019568"><ele>130.66666666666669</ele><time>2026-05-01T08:22:11.961Z</time></trkpt><trkpt lat="40.845082748569546" lon="8.873607944933024"><ele>131.0</ele><time>2026-05-01T08:22:13.961Z</time></trkpt><trkpt lat="40.84509094498814" lon="8.87351979772611"><ele>131.33333333333334</ele><time>2026-05-01T08:22:14.961Z</time></trkpt><trkpt lat="40.845102043486264" lon="8.87343223452781"><ele>131.66666666666666</ele><time>2026-05-01T08:22:15.961Z</time></trkpt><trkpt lat="40.84510694842154" lon="8.873347105909167"><ele>132.0</ele><time>2026-05-01T08:22:16.961Z</time></trkpt><trkpt lat="40.84511948620458" lon="8.87318795701181"><ele>132.0</ele><time>2026-05-01T08:22:18.961Z</time></trkpt><trkpt lat="40.84512883038665" lon="8.87303402359883"><ele>132.0</ele><time>2026-05-01T08:22:20.961Z</time></trkpt><trkpt lat="40.84515262808846" lon="8.87294782445149"><ele>132.0</ele><time>2026-05-01T08:22:21.961Z</time></trkpt><trkpt lat="40.84515476473024" lon="8.872817443347119"><ele>132.0</ele><time>2026-05-01T08:22:23.961Z</time></trkpt><trkpt lat="40.84518744770318" lon="8.87271119833174"><ele>132.0</ele><time>2026-05-01T08:22:25.961Z</time></trkpt><trkpt lat="40.84520115332261" lon="8.872600080557826"><ele>132.5</ele><time>2026-05-01T08:22:27.961Z</time></trkpt><trkpt lat="40.84523329375299" lon="8.872497210420285"><ele>133.0</ele><time>2026-05-01T08:22:29.961Z</time></trkpt><trkpt lat="40.84525584350187" lon="8.872411122171014"><ele>133.5</ele><time>2026-05-01T08:22:30.961Z</time></trkpt><trkpt lat="40.84528488731942" lon="8.872295818325648"><ele>134.0</ele><time>2026-05-01T08:22:31.961Z</time></trkpt><trkpt lat="40.845316233487345" lon="8.872184633921767"><ele>134.5</ele><time>2026-05-01T08:22:32.961Z</time></trkpt><trkpt lat="40.845355044293115" lon="8.872066866241491"><ele>135.0</ele><time>2026-05-01T08:22:33.96Z</time></trkpt><trkpt lat="40.845382437139975" lon="8.871964811809969"><ele>135.0</ele><time>2026-05-01T08:22:34.96Z</time></trkpt><trkpt lat="40.845400957877956" lon="8.87185226615294"><ele>135.0</ele><time>2026-05-01T08:22:35.96Z</time></trkpt><trkpt lat="40.84541977341178" lon="8.871746646996362"><ele>135.0</ele><time>2026-05-01T08:22:36.96Z</time></trkpt><trkpt lat="40.84543823130614" lon="8.871664397334563"><ele>135.0</ele><time>2026-05-01T08:22:37.96Z</time></trkpt><trkpt lat="40.845466219781365" lon="8.871587755828108"><ele>135.0</ele><time>2026-05-01T08:22:38.96Z</time></trkpt><trkpt lat="40.8455233706503" lon="8.871391174893919"><ele>135.16666666666666</ele><time>2026-05-01T08:22:40.96Z</time></trkpt><trkpt lat="40.84555227797175" lon="8.87127402028113"><ele>135.33333333333334</ele><time>2026-05-01T08:22:41.96Z</time></trkpt><trkpt lat="40.845580265706054" lon="8.871179585246432"><ele>135.5</ele><time>2026-05-01T08:22:42.96Z</time></trkpt><trkpt lat="40.84559231829474" lon="8.87109723330239"><ele>135.66666666666669</ele><time>2026-05-01T08:22:43.959Z</time></trkpt><trkpt lat="40.84563035943705" lon="8.870961954687449"><ele>135.83333333333334</ele><time>2026-05-01T08:22:45.959Z</time></trkpt><trkpt lat="40.845639287893775" lon="8.870869635388008"><ele>136.0</ele><time>2026-05-01T08:22:46.96Z</time></trkpt><trkpt lat="40.845657389946965" lon="8.870777549266991"><ele>136.0</ele><time>2026-05-01T08:22:47.96Z</time></trkpt><trkpt lat="40.84568331475058" lon="8.870640496466262"><ele>136.0</ele><time>2026-05-01T08:22:48.96Z</time></trkpt><trkpt lat="40.84571397668563" lon="8.87051714050066"><ele>136.0</ele><time>2026-05-01T08:22:49.96Z</time></trkpt><trkpt lat="40.845743619330804" lon="8.870390898165605"><ele>136.0</ele><time>2026-05-01T08:22:50.96Z</time></trkpt><trkpt lat="40.8457769696797" lon="8.870269876852989"><ele>136.0</ele><time>2026-05-01T08:22:51.96Z</time></trkpt><trkpt lat="40.84580305655281" lon="8.870164997601155"><ele>136.5</ele><time>2026-05-01T08:22:52.96Z</time></trkpt><trkpt lat="40.84583364961156" lon="8.870058573290905"><ele>137.0</ele><time>2026-05-01T08:22:53.96Z</time></trkpt><trkpt lat="40.84586036886706" lon="8.86995734201772"><ele>137.5</ele><time>2026-05-01T08:22:54.96Z</time></trkpt><trkpt lat="40.845895036070274" lon="8.869858419191877"><ele>138.0</ele><time>2026-05-01T08:22:55.96Z</time></trkpt><trkpt lat="40.84593589526489" lon="8.869765592589227"><ele>138.5</ele><time>2026-05-01T08:22:56.96Z</time></trkpt><trkpt lat="40.846008708070286" lon="8.86964209869912"><ele>139.0</ele><time>2026-05-01T08:22:58.96Z</time></trkpt><trkpt lat="40.846053592438004" lon="8.869582109916777"><ele>139.33333333333334</ele><time>2026-05-01T08:22:59.96Z</time></trkpt><trkpt lat="40.84609502130884" lon="8.869515052362972"><ele>139.66666666666669</ele><time>2026-05-01T08:23:00.96Z</time></trkpt><trkpt lat="40.84614009397621" lon="8.86944620319606"><ele>140.0</ele><time>2026-05-01T08:23:01.96Z</time></trkpt><trkpt lat="40.846173503178534" lon="8.869371663202669"><ele>140.33333333333334</ele><time>2026-05-01T08:23:02.96Z</time></trkpt><trkpt lat="40.846219124775075" lon="8.869290567673687"><ele>140.66666666666666</ele><time>2026-05-01T08:23:03.96Z</time></trkpt><trkpt lat="40.8462571601274" lon="8.869212699005413"><ele>141.0</ele><time>2026-05-01T08:23:04.96Z</time></trkpt><trkpt lat="40.84633316668259" lon="8.869079458566707"><ele>141.25</ele><time>2026-05-01T08:23:06.96Z</time></trkpt><trkpt lat="40.84642540782909" lon="8.868979324708084"><ele>141.5</ele><time>2026-05-01T08:23:08.96Z</time></trkpt><trkpt lat="40.84651288761753" lon="8.868858158004537"><ele>141.75</ele><time>2026-05-01T08:23:10.96Z</time></trkpt><trkpt lat="40.84660437989926" lon="8.868728021548657"><ele>142.0</ele><time>2026-05-01T08:23:12.96Z</time></trkpt><trkpt lat="40.84665022635448" lon="8.868645042367149"><ele>142.0</ele><time>2026-05-01T08:23:13.96Z</time></trkpt><trkpt lat="40.84668080981871" lon="8.868570891080573"><ele>142.0</ele><time>2026-05-01T08:23:14.96Z</time></trkpt><trkpt lat="40.846749837482605" lon="8.86841249558517"><ele>142.0</ele><time>2026-05-01T08:23:16.96Z</time></trkpt><trkpt lat="40.846781928151046" lon="8.86832632319966"><ele>142.0</ele><time>2026-05-01T08:23:17.96Z</time></trkpt><trkpt lat="40.84681555274219" lon="8.868241400525207"><ele>142.0</ele><time>2026-05-01T08:23:18.96Z</time></trkpt><trkpt lat="40.846891921271386" lon="8.868099640861118"><ele>142.42857142857142</ele><time>2026-05-01T08:23:20.96Z</time></trkpt><trkpt lat="40.84694006984345" lon="8.868019695272924"><ele>142.85714285714283</ele><time>2026-05-01T08:23:21.96Z</time></trkpt><trkpt lat="40.84697962265903" lon="8.867941605744665"><ele>143.28571428571428</ele><time>2026-05-01T08:23:22.96Z</time></trkpt><trkpt lat="40.84701689089488" lon="8.86786449173369"><ele>143.71428571428572</ele><time>2026-05-01T08:23:23.96Z</time></trkpt><trkpt lat="40.84705059429057" lon="8.867772946362313"><ele>144.14285714285717</ele><time>2026-05-01T08:23:24.96Z</time></trkpt><trkpt lat="40.847083388843" lon="8.867694798574336"><ele>144.57142857142858</ele><time>2026-05-01T08:23:25.96Z</time></trkpt><trkpt lat="40.84711589460041" lon="8.867609878827185"><ele>145.0</ele><time>2026-05-01T08:23:26.96Z</time></trkpt><trkpt lat="40.847138149808515" lon="8.86752235018917"><ele>145.0</ele><time>2026-05-01T08:23:27.96Z</time></trkpt><trkpt lat="40.847162143440684" lon="8.867367523842365"><ele>145.0</ele><time>2026-05-01T08:23:29.96Z</time></trkpt><trkpt lat="40.8471702965964" lon="8.867250642362325"><ele>145.0</ele><time>2026-05-01T08:23:30.96Z</time></trkpt><trkpt lat="40.84717028144268" lon="8.86711519955245"><ele>145.0</ele><time>2026-05-01T08:23:31.96Z</time></trkpt><trkpt lat="40.84715882745012" lon="8.86697486358956"><ele>145.0</ele><time>2026-05-01T08:23:32.96Z</time></trkpt><trkpt lat="40.84715760539661" lon="8.866827755936077"><ele>145.0</ele><time>2026-05-01T08:23:33.96Z</time></trkpt><trkpt lat="40.847162752211666" lon="8.866679392102382"><ele>145.0</ele><time>2026-05-01T08:23:34.96Z</time></trkpt><trkpt lat="40.847168498987585" lon="8.866530539632304"><ele>145.0</ele><time>2026-05-01T08:23:35.96Z</time></trkpt><trkpt lat="40.84717906872362" lon="8.86636902637852"><ele>145.0</ele><time>2026-05-01T08:23:36.96Z</time></trkpt><trkpt lat="40.847193356454234" lon="8.866208936385588"><ele>145.0</ele><time>2026-05-01T08:23:37.96Z</time></trkpt><trkpt lat="40.847207607485075" lon="8.866038732113147"><ele>145.0</ele><time>2026-05-01T08:23:38.96Z</time></trkpt><trkpt lat="40.84721043289943" lon="8.86586518257658"><ele>145.0</ele><time>2026-05-01T08:23:39.96Z</time></trkpt><trkpt lat="40.84721587755797" lon="8.865722922435504"><ele>145.0</ele><time>2026-05-01T08:23:40.96Z</time></trkpt><trkpt lat="40.84722865509945" lon="8.865583568035035"><ele>144.75</ele><time>2026-05-01T08:23:41.96Z</time></trkpt><trkpt lat="40.84725334977332" lon="8.865449240818233"><ele>144.5</ele><time>2026-05-01T08:23:42.96Z</time></trkpt><trkpt lat="40.84728391027976" lon="8.865298628251779"><ele>144.25</ele><time>2026-05-01T08:23:43.96Z</time></trkpt><trkpt lat="40.84731958051505" lon="8.865150108679472"><ele>144.0</ele><time>2026-05-01T08:23:44.96Z</time></trkpt><trkpt lat="40.847346952052824" lon="8.865003093978874"><ele>143.8</ele><time>2026-05-01T08:23:45.96Z</time></trkpt><trkpt lat="40.84738560147224" lon="8.864870130479053"><ele>143.60000000000002</ele><time>2026-05-01T08:23:46.96Z</time></trkpt><trkpt lat="40.84742773278687" lon="8.864757410434427"><ele>143.4</ele><time>2026-05-01T08:23:47.96Z</time></trkpt><trkpt lat="40.84746582442602" lon="8.864650761702746"><ele>143.20000000000002</ele><time>2026-05-01T08:23:48.96Z</time></trkpt><trkpt lat="40.847497301281166" lon="8.86455146042918"><ele>143.0</ele><time>2026-05-01T08:23:49.96Z</time></trkpt><trkpt lat="40.847545492376" lon="8.864460600626314"><ele>143.0</ele><time>2026-05-01T08:23:50.96Z</time></trkpt><trkpt lat="40.84756368779868" lon="8.86435740912044"><ele>143.0</ele><time>2026-05-01T08:23:51.96Z</time></trkpt><trkpt lat="40.847599768945145" lon="8.864260211629071"><ele>143.0</ele><time>2026-05-01T08:23:52.96Z</time></trkpt><trkpt lat="40.84764322959014" lon="8.864187189181441"><ele>143.0</ele><time>2026-05-01T08:23:53.96Z</time></trkpt><trkpt lat="40.847674084466675" lon="8.864103853165771"><ele>143.0</ele><time>2026-05-01T08:23:54.96Z</time></trkpt><trkpt lat="40.847705678345775" lon="8.864017958333854"><ele>143.0</ele><time>2026-05-01T08:23:55.96Z</time></trkpt><trkpt lat="40.84772770127203" lon="8.863902348699712"><ele>143.0</ele><time>2026-05-01T08:23:57.96Z</time></trkpt><trkpt lat="40.84772536087758" lon="8.86403491526644"><ele>143.0</ele><time>2026-05-01T08:24:05.96Z</time></trkpt><trkpt lat="40.84790744268488" lon="8.864210214201513"><ele>143.0</ele><time>2026-05-01T08:24:06.96Z</time></trkpt><trkpt lat="40.84794598498659" lon="8.864284042396573"><ele>143.0</ele><time>2026-05-01T08:24:07.96Z</time></trkpt><trkpt lat="40.84798711434944" lon="8.864379768830812"><ele>143.0</ele><time>2026-05-01T08:24:08.96Z</time></trkpt><trkpt lat="40.848024648721584" lon="8.864482855096346"><ele>143.0</ele><time>2026-05-01T08:24:09.96Z</time></trkpt><trkpt lat="40.84806182968274" lon="8.864592485932256"><ele>143.0</ele><time>2026-05-01T08:24:10.96Z</time></trkpt><trkpt lat="40.84809699111018" lon="8.864693062379235"><ele>143.0</ele><time>2026-05-01T08:24:11.96Z</time></trkpt><trkpt lat="40.84813247953952" lon="8.864792320981767"><ele>143.0</ele><time>2026-05-01T08:24:12.96Z</time></trkpt><trkpt lat="40.848165634996" lon="8.86488802490532"><ele>143.0</ele><time>2026-05-01T08:24:13.96Z</time></trkpt><trkpt lat="40.848204978663034" lon="8.864987866526953"><ele>143.0</ele><time>2026-05-01T08:24:14.96Z</time></trkpt><trkpt lat="40.84824099584906" lon="8.865088733453002"><ele>143.0</ele><time>2026-05-01T08:24:15.96Z</time></trkpt><trkpt lat="40.84828384808581" lon="8.865184632785052"><ele>143.0</ele><time>2026-05-01T08:24:16.96Z</time></trkpt><trkpt lat="40.84832880706393" lon="8.86528368444732"><ele>143.0</ele><time>2026-05-01T08:24:17.96Z</time></trkpt><trkpt lat="40.848369463652766" lon="8.865377457425378"><ele>143.0</ele><time>2026-05-01T08:24:18.96Z</time></trkpt><trkpt lat="40.848410455526135" lon="8.86548802579212"><ele>143.0</ele><time>2026-05-01T08:24:19.96Z</time></trkpt><trkpt lat="40.8484469972827" lon="8.865594790816825"><ele>144.20000000000002</ele><time>2026-05-01T08:24:20.96Z</time></trkpt><trkpt lat="40.84847906380792" lon="8.865705630001152"><ele>145.4</ele><time>2026-05-01T08:24:21.96Z</time></trkpt><trkpt lat="40.848510236400216" lon="8.865809873666828"><ele>146.60000000000002</ele><time>2026-05-01T08:24:22.96Z</time></trkpt><trkpt lat="40.8485467877743" lon="8.865918474121182"><ele>147.8</ele><time>2026-05-01T08:24:23.96Z</time></trkpt><trkpt lat="40.84858626094906" lon="8.866033219555536"><ele>149.0</ele><time>2026-05-01T08:24:24.96Z</time></trkpt><trkpt lat="40.84862644802885" lon="8.866149988521446"><ele>149.2</ele><time>2026-05-01T08:24:25.96Z</time></trkpt><trkpt lat="40.84866503817289" lon="8.866272382056618"><ele>149.4</ele><time>2026-05-01T08:24:26.96Z</time></trkpt><trkpt lat="40.848704411657515" lon="8.866400009154265"><ele>149.6</ele><time>2026-05-01T08:24:27.96Z</time></trkpt><trkpt lat="40.84874700547649" lon="8.86652764609872"><ele>149.8</ele><time>2026-05-01T08:24:28.96Z</time></trkpt><trkpt lat="40.84879405460582" lon="8.866655069182164"><ele>150.0</ele><time>2026-05-01T08:24:29.96Z</time></trkpt><trkpt lat="40.848834180370396" lon="8.866779566408894"><ele>150.2</ele><time>2026-05-01T08:24:30.96Z</time></trkpt><trkpt lat="40.84887598491938" lon="8.86691115758262"><ele>150.4</ele><time>2026-05-01T08:24:31.96Z</time></trkpt><trkpt lat="40.84892338309197" lon="8.867043923040375"><ele>150.6</ele><time>2026-05-01T08:24:32.96Z</time></trkpt><trkpt lat="40.848975435543885" lon="8.867174603104486"><ele>150.8</ele><time>2026-05-01T08:24:33.96Z</time></trkpt><trkpt lat="40.84902973905133" lon="8.867301001933217"><ele>151.0</ele><time>2026-05-01T08:24:34.96Z</time></trkpt><trkpt lat="40.84909551320379" lon="8.867425148946982"><ele>151.0</ele><time>2026-05-01T08:24:35.96Z</time></trkpt><trkpt lat="40.84915577256892" lon="8.867548071822776"><ele>151.0</ele><time>2026-05-01T08:24:36.96Z</time></trkpt><trkpt lat="40.849216102619295" lon="8.867676207411868"><ele>151.0</ele><time>2026-05-01T08:24:37.96Z</time></trkpt><trkpt lat="40.8492785445915" lon="8.867792332397626"><ele>151.0</ele><time>2026-05-01T08:24:38.96Z</time></trkpt><trkpt lat="40.84933698916077" lon="8.867902986439212"><ele>151.0</ele><time>2026-05-01T08:24:39.958Z</time></trkpt><trkpt lat="40.849397299831686" lon="8.868025973999423"><ele>151.4</ele><time>2026-05-01T08:24:40.957Z</time></trkpt><trkpt lat="40.84945922566832" lon="8.868146392841878"><ele>151.8</ele><time>2026-05-01T08:24:41.957Z</time></trkpt><trkpt lat="40.84951677356982" lon="8.86826006853879"><ele>152.20000000000002</ele><time>2026-05-01T08:24:42.957Z</time></trkpt><trkpt lat="40.84956863869415" lon="8.868365036404692"><ele>152.6</ele><time>2026-05-01T08:24:43.957Z</time></trkpt><trkpt lat="40.849623451951544" lon="8.868471103422168"><ele>153.0</ele><time>2026-05-01T08:24:44.957Z</time></trkpt><trkpt lat="40.84967888663372" lon="8.868578489804262"><ele>153.0</ele><time>2026-05-01T08:24:45.958Z</time></trkpt><trkpt lat="40.849728503927764" lon="8.868680491460895"><ele>153.0</ele><time>2026-05-01T08:24:46.958Z</time></trkpt><trkpt lat="40.84977996775029" lon="8.868784884670484"><ele>153.0</ele><time>2026-05-01T08:24:47.958Z</time></trkpt><trkpt lat="40.84983521166841" lon="8.868889343339395"><ele>153.0</ele><time>2026-05-01T08:24:48.958Z</time></trkpt><trkpt lat="40.84989096326291" lon="8.86899327256371"><ele>153.0</ele><time>2026-05-01T08:24:49.957Z</time></trkpt><trkpt lat="40.849950014631624" lon="8.869092752085415"><ele>153.0</ele><time>2026-05-01T08:24:50.957Z</time></trkpt><trkpt lat="40.850011484134725" lon="8.86919725945562"><ele>153.0</ele><time>2026-05-01T08:24:51.957Z</time></trkpt><trkpt lat="40.850064274501015" lon="8.869300687753306"><ele>153.0</ele><time>2026-05-01T08:24:52.957Z</time></trkpt><trkpt lat="40.85011254884344" lon="8.86939931168312"><ele>153.0</ele><time>2026-05-01T08:24:53.957Z</time></trkpt><trkpt lat="40.850165351524176" lon="8.869496853550118"><ele>153.0</ele><time>2026-05-01T08:24:54.957Z</time></trkpt><trkpt lat="40.850216574293086" lon="8.869597063417672"><ele>152.8</ele><time>2026-05-01T08:24:55.957Z</time></trkpt><trkpt lat="40.850268259682444" lon="8.869699703197867"><ele>152.60000000000002</ele><time>2026-05-01T08:24:56.957Z</time></trkpt><trkpt lat="40.85031357105083" lon="8.869802297648876"><ele>152.39999999999998</ele><time>2026-05-01T08:24:57.957Z</time></trkpt><trkpt lat="40.8503576041665" lon="8.869913474206234"><ele>152.2</ele><time>2026-05-01T08:24:58.957Z</time></trkpt><trkpt lat="40.8504012770151" lon="8.870029217814562"><ele>152.0</ele><time>2026-05-01T08:24:59.957Z</time></trkpt><trkpt lat="40.85044322764008" lon="8.870150479534779"><ele>152.0</ele><time>2026-05-01T08:25:00.957Z</time></trkpt><trkpt lat="40.85048438038466" lon="8.870272363053404"><ele>152.0</ele><time>2026-05-01T08:25:01.957Z</time></trkpt><trkpt lat="40.85052761974376" lon="8.870397933984954"><ele>152.0</ele><time>2026-05-01T08:25:02.957Z</time></trkpt><trkpt lat="40.85057317606342" lon="8.870525041904472"><ele>152.0</ele><time>2026-05-01T08:25:03.957Z</time></trkpt><trkpt lat="40.85061925293925" lon="8.870652832446709"><ele>152.0</ele><time>2026-05-01T08:25:04.957Z</time></trkpt><trkpt lat="40.85066333238035" lon="8.870771556010316"><ele>152.0</ele><time>2026-05-01T08:25:05.957Z</time></trkpt><trkpt lat="40.85070289804312" lon="8.870884746643851"><ele>152.0</ele><time>2026-05-01T08:25:06.957Z</time></trkpt><trkpt lat="40.85074061503467" lon="8.870984330197281"><ele>152.0</ele><time>2026-05-01T08:25:07.957Z</time></trkpt><trkpt lat="40.850782331505975" lon="8.87106910329702"><ele>152.0</ele><time>2026-05-01T08:25:08.957Z</time></trkpt><trkpt lat="40.850855877915485" lon="8.871180320269836"><ele>152.0</ele><time>2026-05-01T08:25:10.957Z</time></trkpt><trkpt lat="40.85095664871086" lon="8.871203206911197"><ele>153.0</ele><time>2026-05-01T08:25:12.957Z</time></trkpt><trkpt lat="40.85104543217779" lon="8.871185820455723"><ele>154.0</ele><time>2026-05-01T08:25:13.957Z</time></trkpt><trkpt lat="40.85113585234007" lon="8.871168520897763"><ele>155.0</ele><time>2026-05-01T08:25:14.957Z</time></trkpt><trkpt lat="40.851240294893294" lon="8.87114459142039"><ele>156.0</ele><time>2026-05-01T08:25:15.957Z</time></trkpt><trkpt lat="40.85134023014663" lon="8.871124480687875"><ele>157.0</ele><time>2026-05-01T08:25:16.957Z</time></trkpt><trkpt lat="40.85146826645574" lon="8.871097300722631"><ele>157.0</ele><time>2026-05-01T08:25:17.957Z</time></trkpt><trkpt lat="40.851575280148474" lon="8.871094376062178"><ele>157.0</ele><time>2026-05-01T08:25:18.957Z</time></trkpt><trkpt lat="40.851679192374796" lon="8.87108641782049"><ele>157.0</ele><time>2026-05-01T08:25:19.957Z</time></trkpt><trkpt lat="40.85179102127416" lon="8.871072603499815"><ele>157.0</ele><time>2026-05-01T08:25:20.957Z</time></trkpt><trkpt lat="40.8519136587802" lon="8.871049079471733"><ele>157.0</ele><time>2026-05-01T08:25:21.957Z</time></trkpt><trkpt lat="40.85204532895795" lon="8.871026623358231"><ele>157.25</ele><time>2026-05-01T08:25:22.957Z</time></trkpt><trkpt lat="40.85218326717835" lon="8.871008901598547"><ele>157.5</ele><time>2026-05-01T08:25:23.957Z</time></trkpt><trkpt lat="40.8522982524542" lon="8.871008396783015"><ele>157.75</ele><time>2026-05-01T08:25:24.957Z</time></trkpt><trkpt lat="40.852426579549835" lon="8.870981936089946"><ele>158.0</ele><time>2026-05-01T08:25:25.957Z</time></trkpt><trkpt lat="40.852533477199124" lon="8.87096755754553"><ele>158.25</ele><time>2026-05-01T08:25:26.957Z</time></trkpt><trkpt lat="40.852640066327474" lon="8.870941230021213"><ele>158.5</ele><time>2026-05-01T08:25:27.957Z</time></trkpt><trkpt lat="40.85276542111655" lon="8.870918303297282"><ele>158.75</ele><time>2026-05-01T08:25:28.957Z</time></trkpt><trkpt lat="40.852902948706934" lon="8.870895820485524"><ele>159.0</ele><time>2026-05-01T08:25:29.957Z</time></trkpt><trkpt lat="40.853057036057805" lon="8.870867481018001"><ele>159.5</ele><time>2026-05-01T08:25:30.957Z</time></trkpt><trkpt lat="40.85320247577194" lon="8.870826045857385"><ele>160.0</ele><time>2026-05-01T08:25:31.957Z</time></trkpt><trkpt lat="40.853344199769104" lon="8.870767552893154"><ele>160.5</ele><time>2026-05-01T08:25:32.957Z</time></trkpt><trkpt lat="40.85348769301932" lon="8.870700796750619"><ele>161.0</ele><time>2026-05-01T08:25:33.957Z</time></trkpt><trkpt lat="40.85362775945434" lon="8.870622661907515"><ele>162.0</ele><time>2026-05-01T08:25:34.957Z</time></trkpt><trkpt lat="40.8537682662529" lon="8.870525486597742"><ele>163.0</ele><time>2026-05-01T08:25:35.957Z</time></trkpt><trkpt lat="40.85393005463593" lon="8.870405850313908"><ele>164.0</ele><time>2026-05-01T08:25:36.957Z</time></trkpt><trkpt lat="40.85413057320734" lon="8.870270820352815"><ele>165.66666666666666</ele><time>2026-05-01T08:25:37.957Z</time></trkpt><trkpt lat="40.85435088877493" lon="8.870092184663225"><ele>167.33333333333334</ele><time>2026-05-01T08:25:38.957Z</time></trkpt><trkpt lat="40.854511660637996" lon="8.869969008950127"><ele>169.0</ele><time>2026-05-01T08:25:39.957Z</time></trkpt><trkpt lat="40.85464916238374" lon="8.869857774763465"><ele>169.0</ele><time>2026-05-01T08:25:40.957Z</time></trkpt><trkpt lat="40.85478220337147" lon="8.869743799072491"><ele>169.0</ele><time>2026-05-01T08:25:41.957Z</time></trkpt><trkpt lat="40.854928953457325" lon="8.869606953071797"><ele>169.0</ele><time>2026-05-01T08:25:42.957Z</time></trkpt><trkpt lat="40.8550674119314" lon="8.869469297286413"><ele>168.66666666666669</ele><time>2026-05-01T08:25:43.957Z</time></trkpt><trkpt lat="40.85520912267827" lon="8.869326876357716"><ele>168.33333333333334</ele><time>2026-05-01T08:25:44.957Z</time></trkpt><trkpt lat="40.85535042636999" lon="8.869191850148798"><ele>168.0</ele><time>2026-05-01T08:25:45.957Z</time></trkpt><trkpt lat="40.855498107395725" lon="8.869070640133032"><ele>168.0</ele><time>2026-05-01T08:25:46.957Z</time></trkpt><trkpt lat="40.85565122577016" lon="8.868951415303735"><ele>168.0</ele><time>2026-05-01T08:25:47.957Z</time></trkpt><trkpt lat="40.85580564649714" lon="8.86882556051274"><ele>168.0</ele><time>2026-05-01T08:25:48.957Z</time></trkpt><trkpt lat="40.85573473436191" lon="8.868977756912773"><ele>168.0</ele><time>2026-05-01T08:25:49.957Z</time></trkpt><trkpt lat="40.85586357887272" lon="8.868876450302166"><ele>168.0</ele><time>2026-05-01T08:25:50.957Z</time></trkpt><trkpt lat="40.85599081205903" lon="8.868773815428197"><ele>168.0</ele><time>2026-05-01T08:25:51.957Z</time></trkpt><trkpt lat="40.85610692437705" lon="8.868678949243431"><ele>168.0</ele><time>2026-05-01T08:25:52.957Z</time></trkpt><trkpt lat="40.85620911238314" lon="8.868592760623887"><ele>168.0</ele><time>2026-05-01T08:25:53.957Z</time></trkpt><trkpt lat="40.85630271805486" lon="8.868508255419146"><ele>168.0</ele><time>2026-05-01T08:25:54.957Z</time></trkpt><trkpt lat="40.856395466111785" lon="8.868408344102502"><ele>168.0</ele><time>2026-05-01T08:25:55.957Z</time></trkpt><trkpt lat="40.856484286583616" lon="8.868296156989961"><ele>168.0</ele><time>2026-05-01T08:25:56.957Z</time></trkpt><trkpt lat="40.85657456025465" lon="8.868163559098841"><ele>167.75</ele><time>2026-05-01T08:25:57.957Z</time></trkpt><trkpt lat="40.85667575764489" lon="8.868005446709606"><ele>167.5</ele><time>2026-05-01T08:25:58.957Z</time></trkpt><trkpt lat="40.85676530108876" lon="8.867864122511184"><ele>167.25</ele><time>2026-05-01T08:25:59.957Z</time></trkpt><trkpt lat="40.85684704744225" lon="8.867734145260364"><ele>167.0</ele><time>2026-05-01T08:26:00.957Z</time></trkpt><trkpt lat="40.85692989845842" lon="8.867621091237304"><ele>167.8</ele><time>2026-05-01T08:26:01.957Z</time></trkpt><trkpt lat="40.85701051004517" lon="8.867533741190494"><ele>168.6</ele><time>2026-05-01T08:26:02.957Z</time></trkpt><trkpt lat="40.85708169004552" lon="8.867466290804371"><ele>169.4</ele><time>2026-05-01T08:26:03.957Z</time></trkpt><trkpt lat="40.85717067471829" lon="8.867470434096159"><ele>170.20000000000002</ele><time>2026-05-01T08:26:04.957Z</time></trkpt><trkpt lat="40.85723791327575" lon="8.867428759660864"><ele>171.0</ele><time>2026-05-01T08:26:05.957Z</time></trkpt><trkpt lat="40.85731658910371" lon="8.867352023797721"><ele>171.0</ele><time>2026-05-01T08:26:06.957Z</time></trkpt><trkpt lat="40.857404552195824" lon="8.867286528980411"><ele>171.0</ele><time>2026-05-01T08:26:07.957Z</time></trkpt><trkpt lat="40.85750286514463" lon="8.867199469062944"><ele>171.0</ele><time>2026-05-01T08:26:08.957Z</time></trkpt><trkpt lat="40.85760662572101" lon="8.867102504130823"><ele>171.0</ele><time>2026-05-01T08:26:09.957Z</time></trkpt><trkpt lat="40.857690636608325" lon="8.867022480845787"><ele>171.66666666666666</ele><time>2026-05-01T08:26:10.957Z</time></trkpt><trkpt lat="40.8577694496287" lon="8.866951088871566"><ele>172.33333333333334</ele><time>2026-05-01T08:26:11.957Z</time></trkpt><trkpt lat="40.85783328277961" lon="8.86689342559046"><ele>173.0</ele><time>2026-05-01T08:26:12.957Z</time></trkpt><trkpt lat="40.857896208458726" lon="8.86683045604422"><ele>173.66666666666669</ele><time>2026-05-01T08:26:13.957Z</time></trkpt><trkpt lat="40.85796644744404" lon="8.866750279062698"><ele>174.33333333333334</ele><time>2026-05-01T08:26:14.957Z</time></trkpt><trkpt lat="40.85803040828029" lon="8.866670156903682"><ele>175.0</ele><time>2026-05-01T08:26:15.957Z</time></trkpt><trkpt lat="40.85809642254637" lon="8.866579161907405"><ele>175.25</ele><time>2026-05-01T08:26:16.957Z</time></trkpt><trkpt lat="40.85816508197947" lon="8.866474162391146"><ele>175.5</ele><time>2026-05-01T08:26:17.957Z</time></trkpt><trkpt lat="40.8582315860717" lon="8.866360160627105"><ele>175.75</ele><time>2026-05-01T08:26:18.957Z</time></trkpt><trkpt lat="40.85829868245729" lon="8.866226055953037"><ele>176.0</ele><time>2026-05-01T08:26:19.957Z</time></trkpt><trkpt lat="40.85836421954126" lon="8.866100891617778"><ele>176.0</ele><time>2026-05-01T08:26:20.957Z</time></trkpt><trkpt lat="40.85842979200986" lon="8.865980489287798"><ele>176.0</ele><time>2026-05-01T08:26:21.957Z</time></trkpt><trkpt lat="40.85849988457086" lon="8.865854588541566"><ele>176.0</ele><time>2026-05-01T08:26:22.957Z</time></trkpt><trkpt lat="40.85857016990259" lon="8.865723858231576"><ele>176.0</ele><time>2026-05-01T08:26:23.957Z</time></trkpt><trkpt lat="40.85863695281667" lon="8.865591310357807"><ele>176.5</ele><time>2026-05-01T08:26:24.957Z</time></trkpt><trkpt lat="40.858695785612" lon="8.865452984887197"><ele>177.0</ele><time>2026-05-01T08:26:25.957Z</time></trkpt><trkpt lat="40.85875677092836" lon="8.865313536487617"><ele>177.5</ele><time>2026-05-01T08:26:26.957Z</time></trkpt><trkpt lat="40.85881841531874" lon="8.865173480268787"><ele>178.0</ele><time>2026-05-01T08:26:27.957Z</time></trkpt><trkpt lat="40.858877700413146" lon="8.865025608230159"><ele>179.0</ele><time>2026-05-01T08:26:28.957Z</time></trkpt><trkpt lat="40.85893567737916" lon="8.864868774049043"><ele>180.0</ele><time>2026-05-01T08:26:29.957Z</time></trkpt><trkpt lat="40.8589900368203" lon="8.864699626473273"><ele>181.0</ele><time>2026-05-01T08:26:30.957Z</time></trkpt><trkpt lat="40.85904553822161" lon="8.86455236489307"><ele>182.0</ele><time>2026-05-01T08:26:31.957Z</time></trkpt><trkpt lat="40.85910021124545" lon="8.86441413262816"><ele>182.0</ele><time>2026-05-01T08:26:32.957Z</time></trkpt><trkpt lat="40.859161527071294" lon="8.864284395160801"><ele>182.0</ele><time>2026-05-01T08:26:33.957Z</time></trkpt><trkpt lat="40.85923293627998" lon="8.864170202607063"><ele>182.0</ele><time>2026-05-01T08:26:34.957Z</time></trkpt><trkpt lat="40.85929832713783" lon="8.86406833428748"><ele>182.0</ele><time>2026-05-01T08:26:35.957Z</time></trkpt><trkpt lat="40.85935184688301" lon="8.863966287957934"><ele>182.0</ele><time>2026-05-01T08:26:36.957Z</time></trkpt><trkpt lat="40.8593852729289" lon="8.863862824613188"><ele>182.2</ele><time>2026-05-01T08:26:37.957Z</time></trkpt><trkpt lat="40.8593960571227" lon="8.863748127539568"><ele>182.39999999999998</ele><time>2026-05-01T08:26:38.957Z</time></trkpt><trkpt lat="40.85939387184752" lon="8.863616967836759"><ele>182.60000000000002</ele><time>2026-05-01T08:26:39.957Z</time></trkpt><trkpt lat="40.85939362680992" lon="8.863473534762802"><ele>182.8</ele><time>2026-05-01T08:26:40.957Z</time></trkpt><trkpt lat="40.85939249526282" lon="8.86332105120445"><ele>183.0</ele><time>2026-05-01T08:26:41.957Z</time></trkpt><trkpt lat="40.85939529435537" lon="8.863155542435502"><ele>184.0</ele><time>2026-05-01T08:26:42.957Z</time></trkpt><trkpt lat="40.859401937267066" lon="8.862966840234003"><ele>185.0</ele><time>2026-05-01T08:26:43.957Z</time></trkpt><trkpt lat="40.85941008039483" lon="8.862790824869954"><ele>186.0</ele><time>2026-05-01T08:26:44.957Z</time></trkpt><trkpt lat="40.859416328313195" lon="8.862623213377594"><ele>187.0</ele><time>2026-05-01T08:26:45.955Z</time></trkpt><trkpt lat="40.8594241998729" lon="8.862482637386448"><ele>187.2</ele><time>2026-05-01T08:26:46.955Z</time></trkpt><trkpt lat="40.859421424528165" lon="8.862361972217442"><ele>187.39999999999998</ele><time>2026-05-01T08:26:47.951Z</time></trkpt><trkpt lat="40.859424500531276" lon="8.86226633570902"><ele>187.60000000000002</ele><time>2026-05-01T08:26:48.949Z</time></trkpt><trkpt lat="40.85947383680494" lon="8.862137829306969"><ele>187.8</ele><time>2026-05-01T08:26:50.944Z</time></trkpt><trkpt lat="40.859588635448375" lon="8.862080586276884"><ele>188.0</ele><time>2026-05-01T08:26:52.939Z</time></trkpt><trkpt lat="40.859668581649245" lon="8.862070733500708"><ele>188.0</ele><time>2026-05-01T08:26:53.937Z</time></trkpt><trkpt lat="40.85977333590441" lon="8.862060980362712"><ele>188.0</ele><time>2026-05-01T08:26:54.935Z</time></trkpt><trkpt lat="40.85989501653674" lon="8.862046540808839"><ele>188.0</ele><time>2026-05-01T08:26:55.933Z</time></trkpt><trkpt lat="40.8600049537274" lon="8.86201954431163"><ele>188.0</ele><time>2026-05-01T08:26:56.931Z</time></trkpt><trkpt lat="40.8600915709392" lon="8.861979708203549"><ele>188.0</ele><time>2026-05-01T08:26:57.93Z</time></trkpt><trkpt lat="40.86017821517804" lon="8.861928395069297"><ele>188.75</ele><time>2026-05-01T08:26:58.928Z</time></trkpt><trkpt lat="40.8602581522991" lon="8.861841412895853"><ele>189.5</ele><time>2026-05-01T08:26:59.926Z</time></trkpt><trkpt lat="40.8603411574137" lon="8.861735296455182"><ele>190.25</ele><time>2026-05-01T08:27:00.925Z</time></trkpt><trkpt lat="40.86043596361222" lon="8.861610870054166"><ele>191.0</ele><time>2026-05-01T08:27:01.924Z</time></trkpt><trkpt lat="40.860541581044046" lon="8.861482604834789"><ele>191.75</ele><time>2026-05-01T08:27:02.923Z</time></trkpt><trkpt lat="40.860651662757306" lon="8.861354450766711"><ele>192.5</ele><time>2026-05-01T08:27:03.922Z</time></trkpt><trkpt lat="40.860750790089064" lon="8.861245532092092"><ele>193.25</ele><time>2026-05-01T08:27:04.921Z</time></trkpt><trkpt lat="40.8608451607219" lon="8.86114254061534"><ele>194.0</ele><time>2026-05-01T08:27:05.92Z</time></trkpt><trkpt lat="40.86094037942492" lon="8.861037152084137"><ele>194.5</ele><time>2026-05-01T08:27:06.919Z</time></trkpt><trkpt lat="40.86103325370187" lon="8.860932155404662"><ele>195.0</ele><time>2026-05-01T08:27:07.918Z</time></trkpt><trkpt lat="40.86112101793225" lon="8.86083227714729"><ele>195.5</ele><time>2026-05-01T08:27:08.917Z</time></trkpt><trkpt lat="40.86120422140068" lon="8.860741956808862"><ele>196.0</ele><time>2026-05-01T08:27:09.916Z</time></trkpt><trkpt lat="40.861290762038976" lon="8.86064811504585"><ele>196.0</ele><time>2026-05-01T08:27:10.916Z</time></trkpt><trkpt lat="40.86137643139559" lon="8.860561061419501"><ele>196.0</ele><time>2026-05-01T08:27:11.915Z</time></trkpt><trkpt lat="40.86146093681038" lon="8.86047735117524"><ele>196.0</ele><time>2026-05-01T08:27:12.914Z</time></trkpt><trkpt lat="40.86154186832714" lon="8.86040257986047"><ele>196.0</ele><time>2026-05-01T08:27:13.914Z</time></trkpt><trkpt lat="40.86160828205127" lon="8.860335604605634"><ele>196.0</ele><time>2026-05-01T08:27:14.913Z</time></trkpt><trkpt lat="40.86166608570421" lon="8.86026290915152"><ele>196.0</ele><time>2026-05-01T08:27:15.913Z</time></trkpt><trkpt lat="40.861723536661486" lon="8.860175280534861"><ele>196.0</ele><time>2026-05-01T08:27:16.912Z</time></trkpt><trkpt lat="40.861777044716916" lon="8.860077650146641"><ele>196.0</ele><time>2026-05-01T08:27:17.912Z</time></trkpt><trkpt lat="40.86183368776525" lon="8.85997309193659"><ele>196.0</ele><time>2026-05-01T08:27:18.911Z</time></trkpt><trkpt lat="40.86189421662559" lon="8.859867061755665"><ele>196.0</ele><time>2026-05-01T08:27:19.911Z</time></trkpt><trkpt lat="40.86195874556564" lon="8.859754247462277"><ele>195.8</ele><time>2026-05-01T08:27:20.91Z</time></trkpt><trkpt lat="40.862027007058266" lon="8.859636283379286"><ele>195.60000000000002</ele><time>2026-05-01T08:27:21.91Z</time></trkpt><trkpt lat="40.86209280609684" lon="8.85951667721892"><ele>195.4</ele><time>2026-05-01T08:27:22.91Z</time></trkpt><trkpt lat="40.862158103472005" lon="8.859396679519575"><ele>195.2</ele><time>2026-05-01T08:27:23.909Z</time></trkpt><trkpt lat="40.862222340946175" lon="8.859280465109853"><ele>195.0</ele><time>2026-05-01T08:27:24.909Z</time></trkpt><trkpt lat="40.862288288020785" lon="8.859165951436019"><ele>194.4</ele><time>2026-05-01T08:27:25.909Z</time></trkpt><trkpt lat="40.86235131707952" lon="8.859053675461652"><ele>193.8</ele><time>2026-05-01T08:27:26.909Z</time></trkpt><trkpt lat="40.86240946083944" lon="8.858950147177442"><ele>193.2</ele><time>2026-05-01T08:27:27.908Z</time></trkpt><trkpt lat="40.86246954143497" lon="8.858842791584358"><ele>192.6</ele><time>2026-05-01T08:27:28.908Z</time></trkpt><trkpt lat="40.86253438933058" lon="8.858730477784297"><ele>192.0</ele><time>2026-05-01T08:27:29.908Z</time></trkpt><trkpt lat="40.86259794359061" lon="8.858622059966027"><ele>191.39999999999998</ele><time>2026-05-01T08:27:30.908Z</time></trkpt><trkpt lat="40.862662987535266" lon="8.858509784833352"><ele>190.79999999999998</ele><time>2026-05-01T08:27:31.908Z</time></trkpt><trkpt lat="40.86272153058131" lon="8.858409934220848"><ele>190.2</ele><time>2026-05-01T08:27:32.907Z</time></trkpt><trkpt lat="40.8627749802551" lon="8.858319937055365"><ele>189.6</ele><time>2026-05-01T08:27:33.907Z</time></trkpt><trkpt lat="40.86281628194833" lon="8.858246217551214"><ele>189.0</ele><time>2026-05-01T08:27:34.907Z</time></trkpt><trkpt lat="40.862883155327246" lon="8.858135236943587"><ele>188.79999999999998</ele><time>2026-05-01T08:27:36.907Z</time></trkpt><trkpt lat="40.86285313544079" lon="8.857971149052068"><ele>188.6</ele><time>2026-05-01T08:27:38.906Z</time></trkpt><trkpt lat="40.86282959416716" lon="8.857875999767982"><ele>188.4</ele><time>2026-05-01T08:27:39.906Z</time></trkpt><trkpt lat="40.86279525791809" lon="8.857761194666043"><ele>188.2</ele><time>2026-05-01T08:27:40.906Z</time></trkpt><trkpt lat="40.86276512977747" lon="8.857631926239298"><ele>188.0</ele><time>2026-05-01T08:27:41.906Z</time></trkpt><trkpt lat="40.862750727423524" lon="8.857489594716146"><ele>189.0</ele><time>2026-05-01T08:27:42.906Z</time></trkpt><trkpt lat="40.86272011737508" lon="8.857341335471938"><ele>190.0</ele><time>2026-05-01T08:27:43.906Z</time></trkpt><trkpt lat="40.86269213690485" lon="8.857188653174584"><ele>191.0</ele><time>2026-05-01T08:27:44.906Z</time></trkpt><trkpt lat="40.862663684572624" lon="8.857030260828047"><ele>192.0</ele><time>2026-05-01T08:27:45.906Z</time></trkpt><trkpt lat="40.862631607633034" lon="8.856889944318187"><ele>192.0</ele><time>2026-05-01T08:27:46.906Z</time></trkpt><trkpt lat="40.862603344096414" lon="8.856765100509369"><ele>192.0</ele><time>2026-05-01T08:27:47.906Z</time></trkpt><trkpt lat="40.862579153694156" lon="8.85666820076074"><ele>192.0</ele><time>2026-05-01T08:27:48.906Z</time></trkpt><trkpt lat="40.862554720540786" lon="8.856589594820061"><ele>192.0</ele><time>2026-05-01T08:27:49.905Z</time></trkpt><trkpt lat="40.86255039268042" lon="8.856446503211968"><ele>192.0</ele><time>2026-05-01T08:27:51.905Z</time></trkpt><trkpt lat="40.86259231537166" lon="8.856282476701969"><ele>192.2</ele><time>2026-05-01T08:27:53.905Z</time></trkpt><trkpt lat="40.862627847309746" lon="8.85616542672813"><ele>192.39999999999998</ele><time>2026-05-01T08:27:54.905Z</time></trkpt><trkpt lat="40.86265683020165" lon="8.856037409182619"><ele>192.60000000000002</ele><time>2026-05-01T08:27:55.905Z</time></trkpt><trkpt lat="40.86269001303153" lon="8.85590136068841"><ele>192.8</ele><time>2026-05-01T08:27:56.905Z</time></trkpt><trkpt lat="40.86272445969397" lon="8.855750327855786"><ele>193.0</ele><time>2026-05-01T08:27:57.905Z</time></trkpt><trkpt lat="40.86276494897199" lon="8.85560893083876"><ele>193.25</ele><time>2026-05-01T08:27:58.905Z</time></trkpt><trkpt lat="40.86281255387347" lon="8.85546221322318"><ele>193.5</ele><time>2026-05-01T08:27:59.905Z</time></trkpt><trkpt lat="40.86287265994622" lon="8.85531188492761"><ele>193.75</ele><time>2026-05-01T08:28:00.905Z</time></trkpt><trkpt lat="40.8629345669056" lon="8.855171577150957"><ele>194.0</ele><time>2026-05-01T08:28:01.905Z</time></trkpt><trkpt lat="40.86299316795139" lon="8.855054557604888"><ele>194.00000000000003</ele><time>2026-05-01T08:28:02.905Z</time></trkpt><trkpt lat="40.863045272709954" lon="8.854969564218719"><ele>194.0</ele><time>2026-05-01T08:28:03.905Z</time></trkpt><trkpt lat="40.86309852227567" lon="8.854901591433316"><ele>194.0</ele><time>2026-05-01T08:28:04.905Z</time></trkpt><trkpt lat="40.863160623811694" lon="8.854852679475416"><ele>194.0</ele><time>2026-05-01T08:28:05.905Z</time></trkpt><trkpt lat="40.86323501195293" lon="8.85481247346556"><ele>194.00000000000003</ele><time>2026-05-01T08:28:06.905Z</time></trkpt><trkpt lat="40.86330605680762" lon="8.854776074224727"><ele>194.0</ele><time>2026-05-01T08:28:07.905Z</time></trkpt><trkpt lat="40.86335799490028" lon="8.854723542776366"><ele>194.00000000000003</ele><time>2026-05-01T08:28:08.905Z</time></trkpt><trkpt lat="40.86340941574226" lon="8.85458322082753"><ele>194.0</ele><time>2026-05-01T08:28:10.905Z</time></trkpt><trkpt lat="40.86342311358888" lon="8.854501148062488"><ele>194.0</ele><time>2026-05-01T08:28:11.905Z</time></trkpt><trkpt lat="40.86341208788443" lon="8.854355987662451"><ele>194.0</ele><time>2026-05-01T08:28:13.904Z</time></trkpt><trkpt lat="40.8633913428754" lon="8.85426844691749"><ele>194.00000000000003</ele><time>2026-05-01T08:28:14.904Z</time></trkpt><trkpt lat="40.86336237640665" lon="8.854177902637359"><ele>194.0</ele><time>2026-05-01T08:28:15.904Z</time></trkpt><trkpt lat="40.86331576508891" lon="8.854072373118141"><ele>194.6</ele><time>2026-05-01T08:28:16.904Z</time></trkpt><trkpt lat="40.86325319961756" lon="8.853953588051304"><ele>195.2</ele><time>2026-05-01T08:28:17.904Z</time></trkpt><trkpt lat="40.86320187490018" lon="8.853838153363437"><ele>195.79999999999998</ele><time>2026-05-01T08:28:18.904Z</time></trkpt><trkpt lat="40.86315159420227" lon="8.853721351029982"><ele>196.39999999999998</ele><time>2026-05-01T08:28:19.904Z</time></trkpt><trkpt lat="40.86310864324715" lon="8.853615763430236"><ele>197.0</ele><time>2026-05-01T08:28:20.904Z</time></trkpt><trkpt lat="40.863073029618924" lon="8.85352181704377"><ele>197.8</ele><time>2026-05-01T08:28:21.904Z</time></trkpt><trkpt lat="40.86306537725683" lon="8.853358848314762"><ele>198.6</ele><time>2026-05-01T08:28:23.904Z</time></trkpt><trkpt lat="40.86309479922541" lon="8.853276007569313"><ele>199.4</ele><time>2026-05-01T08:28:24.904Z</time></trkpt><trkpt lat="40.86313718830735" lon="8.853182474444644"><ele>200.20000000000002</ele><time>2026-05-01T08:28:25.904Z</time></trkpt><trkpt lat="40.86319368033002" lon="8.853083220980375"><ele>201.0</ele><time>2026-05-01T08:28:26.904Z</time></trkpt><trkpt lat="40.86325116056063" lon="8.852982788389642"><ele>201.0</ele><time>2026-05-01T08:28:27.904Z</time></trkpt><trkpt lat="40.863299877178434" lon="8.852882390979447"><ele>201.0</ele><time>2026-05-01T08:28:28.904Z</time></trkpt><trkpt lat="40.86333962863038" lon="8.852784360676997"><ele>201.0</ele><time>2026-05-01T08:28:29.904Z</time></trkpt><trkpt lat="40.86336529283137" lon="8.852678110188338"><ele>201.0</ele><time>2026-05-01T08:28:30.904Z</time></trkpt><trkpt lat="40.86338256940389" lon="8.852564291211783"><ele>201.0</ele><time>2026-05-01T08:28:31.904Z</time></trkpt><trkpt lat="40.86340074038521" lon="8.852425720870617"><ele>200.75</ele><time>2026-05-01T08:28:32.904Z</time></trkpt><trkpt lat="40.863422305232" lon="8.852274758121862"><ele>200.5</ele><time>2026-05-01T08:28:33.904Z</time></trkpt><trkpt lat="40.863455807823875" lon="8.85212502373273"><ele>200.25</ele><time>2026-05-01T08:28:34.904Z</time></trkpt><trkpt lat="40.863490841802104" lon="8.851983623114842"><ele>200.0</ele><time>2026-05-01T08:28:35.904Z</time></trkpt><trkpt lat="40.86353869766216" lon="8.85182748408973"><ele>200.0</ele><time>2026-05-01T08:28:36.904Z</time></trkpt><trkpt lat="40.8635895869682" lon="8.851678419822857"><ele>200.0</ele><time>2026-05-01T08:28:37.904Z</time></trkpt><trkpt lat="40.863642255837306" lon="8.851517327130725"><ele>200.0</ele><time>2026-05-01T08:28:38.904Z</time></trkpt><trkpt lat="40.8636983313858" lon="8.85135024889484"><ele>200.0</ele><time>2026-05-01T08:28:39.904Z</time></trkpt><trkpt lat="40.863758628335816" lon="8.85117612398759"><ele>200.0</ele><time>2026-05-01T08:28:40.904Z</time></trkpt><trkpt lat="40.86381944935787" lon="8.850982351716096"><ele>200.0</ele><time>2026-05-01T08:28:41.904Z</time></trkpt><trkpt lat="40.86389774362618" lon="8.850796074443913"><ele>200.0</ele><time>2026-05-01T08:28:42.904Z</time></trkpt><trkpt lat="40.86396254811714" lon="8.850601037628525"><ele>200.5</ele><time>2026-05-01T08:28:43.904Z</time></trkpt><trkpt lat="40.86402854553254" lon="8.85041169022608"><ele>201.0</ele><time>2026-05-01T08:28:44.904Z</time></trkpt><trkpt lat="40.86408667697567" lon="8.850244226408993"><ele>201.5</ele><time>2026-05-01T08:28:45.904Z</time></trkpt><trkpt lat="40.864125798301885" lon="8.850075692333723"><ele>202.0</ele><time>2026-05-01T08:28:46.904Z</time></trkpt><trkpt lat="40.86418524273292" lon="8.849916725464634"><ele>202.25</ele><time>2026-05-01T08:28:47.904Z</time></trkpt><trkpt lat="40.864244409043444" lon="8.849755784850762"><ele>202.5</ele><time>2026-05-01T08:28:48.904Z</time></trkpt><trkpt lat="40.864301626769596" lon="8.849595314204981"><ele>202.75</ele><time>2026-05-01T08:28:49.904Z</time></trkpt><trkpt lat="40.86435483000002" lon="8.849431545509171"><ele>203.0</ele><time>2026-05-01T08:28:50.902Z</time></trkpt><trkpt lat="40.86439594153303" lon="8.849281785133515"><ele>203.75</ele><time>2026-05-01T08:28:51.902Z</time></trkpt><trkpt lat="40.864433328404054" lon="8.849120874875215"><ele>204.5</ele><time>2026-05-01T08:28:52.902Z</time></trkpt><trkpt lat="40.86448047393119" lon="8.84895556375967"><ele>205.25</ele><time>2026-05-01T08:28:53.902Z</time></trkpt><trkpt lat="40.86453394452478" lon="8.848790498634246"><ele>206.0</ele><time>2026-05-01T08:28:54.902Z</time></trkpt><trkpt lat="40.86459355220174" lon="8.848620922602084"><ele>206.75</ele><time>2026-05-01T08:28:55.902Z</time></trkpt><trkpt lat="40.86465712987764" lon="8.848453170648186"><ele>207.5</ele><time>2026-05-01T08:28:56.902Z</time></trkpt><trkpt lat="40.864715207406725" lon="8.848304045608607"><ele>208.25</ele><time>2026-05-01T08:28:57.901Z</time></trkpt><trkpt lat="40.86476903737242" lon="8.848161746177096"><ele>209.0</ele><time>2026-05-01T08:28:58.901Z</time></trkpt><trkpt lat="40.86481382635569" lon="8.848031276731058"><ele>209.0</ele><time>2026-05-01T08:28:59.902Z</time></trkpt><trkpt lat="40.864848508028444" lon="8.847911173242736"><ele>209.0</ele><time>2026-05-01T08:29:00.902Z</time></trkpt><trkpt lat="40.86487706179958" lon="8.847783729535863"><ele>209.0</ele><time>2026-05-01T08:29:01.902Z</time></trkpt><trkpt lat="40.86489423655858" lon="8.847652804556764"><ele>209.0</ele><time>2026-05-01T08:29:02.902Z</time></trkpt><trkpt lat="40.864914348974104" lon="8.847536933041592"><ele>209.0</ele><time>2026-05-01T08:29:03.902Z</time></trkpt><trkpt lat="40.86493090034703" lon="8.847438168862432"><ele>208.66666666666669</ele><time>2026-05-01T08:29:04.902Z</time></trkpt><trkpt lat="40.86494931638998" lon="8.847357942530488"><ele>208.33333333333334</ele><time>2026-05-01T08:29:05.902Z</time></trkpt><trkpt lat="40.86497531854471" lon="8.847255848443409"><ele>208.0</ele><time>2026-05-01T08:29:07.902Z</time></trkpt><trkpt lat="40.86506477712509" lon="8.847260502490325"><ele>207.66666666666669</ele><time>2026-05-01T08:29:09.902Z</time></trkpt><trkpt lat="40.86512742272415" lon="8.847244577163362"><ele>207.33333333333334</ele><time>2026-05-01T08:29:10.902Z</time></trkpt><trkpt lat="40.86520132053516" lon="8.84725757234626"><ele>207.0</ele><time>2026-05-01T08:29:11.902Z</time></trkpt><trkpt lat="40.8652907714796" lon="8.847271361782717"><ele>208.0</ele><time>2026-05-01T08:29:12.902Z</time></trkpt><trkpt lat="40.86540337179593" lon="8.847275105195209"><ele>209.0</ele><time>2026-05-01T08:29:13.902Z</time></trkpt><trkpt lat="40.86552607991563" lon="8.847273497845723"><ele>210.0</ele><time>2026-05-01T08:29:14.902Z</time></trkpt><trkpt lat="40.86565814252151" lon="8.847270341154722"><ele>211.0</ele><time>2026-05-01T08:29:15.902Z</time></trkpt><trkpt lat="40.86581124766545" lon="8.847256289610048"><ele>212.66666666666666</ele><time>2026-05-01T08:29:16.902Z</time></trkpt><trkpt lat="40.86596527724461" lon="8.847244938561488"><ele>214.33333333333331</ele><time>2026-05-01T08:29:17.902Z</time></trkpt><trkpt lat="40.86611957302917" lon="8.847242065599005"><ele>216.0</ele><time>2026-05-01T08:29:18.902Z</time></trkpt><trkpt lat="40.86627330297798" lon="8.84725472533906"><ele>216.0</ele><time>2026-05-01T08:29:19.902Z</time></trkpt><trkpt lat="40.866418492293406" lon="8.847295134957369"><ele>216.0</ele><time>2026-05-01T08:29:20.902Z</time></trkpt><trkpt lat="40.86656155389988" lon="8.847346867483733"><ele>216.0</ele><time>2026-05-01T08:29:21.902Z</time></trkpt><trkpt lat="40.86670539195752" lon="8.847406163689598"><ele>216.0</ele><time>2026-05-01T08:29:22.902Z</time></trkpt><trkpt lat="40.86685056112853" lon="8.847473084244275"><ele>216.0</ele><time>2026-05-01T08:29:23.902Z</time></trkpt><trkpt lat="40.866997828806525" lon="8.84753791319104"><ele>216.0</ele><time>2026-05-01T08:29:24.902Z</time></trkpt><trkpt lat="40.86714757133606" lon="8.847604462607627"><ele>216.0</ele><time>2026-05-01T08:29:25.902Z</time></trkpt><trkpt lat="40.86729860004158" lon="8.847669265415043"><ele>216.0</ele><time>2026-05-01T08:29:26.902Z</time></trkpt><trkpt lat="40.867459344698844" lon="8.847736319571847"><ele>216.0</ele><time>2026-05-01T08:29:27.901Z</time></trkpt><trkpt lat="40.86761772610711" lon="8.847800926483547"><ele>216.0</ele><time>2026-05-01T08:29:28.901Z</time></trkpt><trkpt lat="40.86778845484326" lon="8.847862122576839"><ele>217.0</ele><time>2026-05-01T08:29:29.901Z</time></trkpt><trkpt lat="40.86795035719991" lon="8.8479281474446"><ele>218.0</ele><time>2026-05-01T08:29:30.901Z</time></trkpt><trkpt lat="40.86809395111629" lon="8.847992132903842"><ele>219.0</ele><time>2026-05-01T08:29:31.901Z</time></trkpt><trkpt lat="40.86821612564674" lon="8.848045784366112"><ele>219.0</ele><time>2026-05-01T08:29:32.901Z</time></trkpt><trkpt lat="40.868331526438524" lon="8.848069356707764"><ele>218.99999999999997</ele><time>2026-05-01T08:29:33.901Z</time></trkpt><trkpt lat="40.868430797327875" lon="8.848075506904664"><ele>218.99999999999997</ele><time>2026-05-01T08:29:34.901Z</time></trkpt><trkpt lat="40.86851972183152" lon="8.848054479784293"><ele>219.0</ele><time>2026-05-01T08:29:35.901Z</time></trkpt><trkpt lat="40.868605529308056" lon="8.848008474463004"><ele>219.0</ele><time>2026-05-01T08:29:36.901Z</time></trkpt><trkpt lat="40.8687032103881" lon="8.847936535129065"><ele>219.0</ele><time>2026-05-01T08:29:37.901Z</time></trkpt><trkpt lat="40.86881878683" lon="8.847854996374455"><ele>219.0</ele><time>2026-05-01T08:29:38.901Z</time></trkpt><trkpt lat="40.86894321058233" lon="8.847762069149983"><ele>219.0</ele><time>2026-05-01T08:29:39.901Z</time></trkpt><trkpt lat="40.86906485750811" lon="8.847675708833497"><ele>219.0</ele><time>2026-05-01T08:29:40.901Z</time></trkpt><trkpt lat="40.86918666444655" lon="8.847593713341922"><ele>220.2</ele><time>2026-05-01T08:29:41.901Z</time></trkpt><trkpt lat="40.86930220767271" lon="8.847515016167232"><ele>221.39999999999998</ele><time>2026-05-01T08:29:42.901Z</time></trkpt><trkpt lat="40.86940117651131" lon="8.847451948280113"><ele>222.6</ele><time>2026-05-01T08:29:43.901Z</time></trkpt><trkpt lat="40.869474390966765" lon="8.84740763430019"><ele>223.8</ele><time>2026-05-01T08:29:44.901Z</time></trkpt><trkpt lat="40.86955984195181" lon="8.847363321085247"><ele>225.0</ele><time>2026-05-01T08:29:46.901Z</time></trkpt><trkpt lat="40.86956043563494" lon="8.847216467750506"><ele>225.0</ele><time>2026-05-01T08:29:48.901Z</time></trkpt><trkpt lat="40.86952087562939" lon="8.847076731539135"><ele>225.0</ele><time>2026-05-01T08:29:50.901Z</time></trkpt><trkpt lat="40.8694844566258" lon="8.846984398632458"><ele>225.0</ele><time>2026-05-01T08:29:51.901Z</time></trkpt><trkpt lat="40.8694444145337" lon="8.846870004828762"><ele>225.0</ele><time>2026-05-01T08:29:52.901Z</time></trkpt><trkpt lat="40.86938860791446" lon="8.846757596733243"><ele>225.0</ele><time>2026-05-01T08:29:53.901Z</time></trkpt><trkpt lat="40.86932901668012" lon="8.84663756556853"><ele>224.25</ele><time>2026-05-01T08:29:54.901Z</time></trkpt><trkpt lat="40.86926693087447" lon="8.84650736500964"><ele>223.5</ele><time>2026-05-01T08:29:55.901Z</time></trkpt><trkpt lat="40.8692059474219" lon="8.846377494746854"><ele>222.75</ele><time>2026-05-01T08:29:56.901Z</time></trkpt><trkpt lat="40.869146617914865" lon="8.846253615580736"><ele>222.0</ele><time>2026-05-01T08:29:57.901Z</time></trkpt><trkpt lat="40.8690840819399" lon="8.846127052296577"><ele>222.0</ele><time>2026-05-01T08:29:58.901Z</time></trkpt><trkpt lat="40.86901831781961" lon="8.84599885073829"><ele>222.0</ele><time>2026-05-01T08:29:59.901Z</time></trkpt><trkpt lat="40.868947315507654" lon="8.845870290442168"><ele>222.0</ele><time>2026-05-01T08:30:00.901Z</time></trkpt><trkpt lat="40.86886822142924" lon="8.845733191209085"><ele>222.0</ele><time>2026-05-01T08:30:01.901Z</time></trkpt><trkpt lat="40.86877820275775" lon="8.84560912259384"><ele>222.39999999999998</ele><time>2026-05-01T08:30:02.901Z</time></trkpt><trkpt lat="40.86869591300459" lon="8.845469090695756"><ele>222.79999999999998</ele><time>2026-05-01T08:30:03.901Z</time></trkpt><trkpt lat="40.86863897295996" lon="8.845347300220457"><ele>223.2</ele><time>2026-05-01T08:30:04.901Z</time></trkpt><trkpt lat="40.86858453808052" lon="8.845237110210528"><ele>223.6</ele><time>2026-05-01T08:30:05.901Z</time></trkpt><trkpt lat="40.868532402497074" lon="8.845127368656815"><ele>224.0</ele><time>2026-05-01T08:30:06.901Z</time></trkpt><trkpt lat="40.86849281337909" lon="8.845020624360476"><ele>224.5</ele><time>2026-05-01T08:30:07.901Z</time></trkpt><trkpt lat="40.868456134687015" lon="8.844930578372498"><ele>225.0</ele><time>2026-05-01T08:30:08.901Z</time></trkpt><trkpt lat="40.86822586229064" lon="8.844535493772096"><ele>225.0</ele><time>2026-05-01T08:30:09.901Z</time></trkpt><trkpt lat="40.86819399821486" lon="8.844422695160501"><ele>225.0</ele><time>2026-05-01T08:30:10.901Z</time></trkpt><trkpt lat="40.868144327129414" lon="8.844306384437989"><ele>225.0</ele><time>2026-05-01T08:30:11.901Z</time></trkpt><trkpt lat="40.868096451294676" lon="8.844196795931545"><ele>225.0</ele><time>2026-05-01T08:30:12.901Z</time></trkpt><trkpt lat="40.868041396440404" lon="8.84409927077249"><ele>225.0</ele><time>2026-05-01T08:30:13.901Z</time></trkpt><trkpt lat="40.86798118542809" lon="8.84400646045231"><ele>225.33333333333334</ele><time>2026-05-01T08:30:14.901Z</time></trkpt><trkpt lat="40.867925119530625" lon="8.843934603513075"><ele>225.66666666666669</ele><time>2026-05-01T08:30:15.901Z</time></trkpt><trkpt lat="40.86787148974179" lon="8.843887593256845"><ele>226.0</ele><time>2026-05-01T08:30:16.901Z</time></trkpt><trkpt lat="40.867792332768495" lon="8.843822720335448"><ele>226.33333333333334</ele><time>2026-05-01T08:30:18.901Z</time></trkpt><trkpt lat="40.86782655413221" lon="8.843700986076518"><ele>226.66666666666669</ele><time>2026-05-01T08:30:22.901Z</time></trkpt><trkpt lat="40.86789368037839" lon="8.843598318118088"><ele>227.0</ele><time>2026-05-01T08:30:24.901Z</time></trkpt><trkpt lat="40.867940698923746" lon="8.843532225505385"><ele>227.6</ele><time>2026-05-01T08:30:25.901Z</time></trkpt><trkpt lat="40.86800012521649" lon="8.843448234912724"><ele>228.2</ele><time>2026-05-01T08:30:26.901Z</time></trkpt><trkpt lat="40.86806798650406" lon="8.843352322626735"><ele>228.8</ele><time>2026-05-01T08:30:27.901Z</time></trkpt><trkpt lat="40.86814421040019" lon="8.843242319363048"><ele>229.4</ele><time>2026-05-01T08:30:28.901Z</time></trkpt><trkpt lat="40.86822146694805" lon="8.843125398035104"><ele>230.0</ele><time>2026-05-01T08:30:29.901Z</time></trkpt><trkpt lat="40.868303792641385" lon="8.84299693149601"><ele>230.0</ele><time>2026-05-01T08:30:30.901Z</time></trkpt><trkpt lat="40.86837758213648" lon="8.842848007651051"><ele>230.0</ele><time>2026-05-01T08:30:31.901Z</time></trkpt><trkpt lat="40.86848630259607" lon="8.842685546336236"><ele>230.0</ele><time>2026-05-01T08:30:32.901Z</time></trkpt><trkpt lat="40.86857716742333" lon="8.842548446614469"><ele>230.0</ele><time>2026-05-01T08:30:33.901Z</time></trkpt><trkpt lat="40.868661230418994" lon="8.842410236490085"><ele>231.75</ele><time>2026-05-01T08:30:34.901Z</time></trkpt><trkpt lat="40.86873876350776" lon="8.842288136345534"><ele>233.5</ele><time>2026-05-01T08:30:35.901Z</time></trkpt><trkpt lat="40.86880665759176" lon="8.842175726622"><ele>235.25</ele><time>2026-05-01T08:30:36.901Z</time></trkpt><trkpt lat="40.8688772425564" lon="8.84206647288052"><ele>237.0</ele><time>2026-05-01T08:30:37.901Z</time></trkpt><trkpt lat="40.86896070125369" lon="8.841948531924633"><ele>237.0</ele><time>2026-05-01T08:30:38.901Z</time></trkpt><trkpt lat="40.86903940795914" lon="8.841833579410393"><ele>237.0</ele><time>2026-05-01T08:30:39.901Z</time></trkpt><trkpt lat="40.869109838661444" lon="8.8417318185314"><ele>237.0</ele><time>2026-05-01T08:30:40.901Z</time></trkpt><trkpt lat="40.86916850782047" lon="8.841648102893153"><ele>237.0</ele><time>2026-05-01T08:30:41.901Z</time></trkpt><trkpt lat="40.86920371680435" lon="8.841572461283395"><ele>237.0</ele><time>2026-05-01T08:30:42.901Z</time></trkpt><trkpt lat="40.86921883783563" lon="8.841488777382056"><ele>237.0</ele><time>2026-05-01T08:30:43.9Z</time></trkpt><trkpt lat="40.869214621381005" lon="8.841402790562228"><ele>237.83333333333334</ele><time>2026-05-01T08:30:44.9Z</time></trkpt><trkpt lat="40.86919687448618" lon="8.84131334773428"><ele>238.66666666666669</ele><time>2026-05-01T08:30:45.9Z</time></trkpt><trkpt lat="40.86916157869427" lon="8.841208605169108"><ele>239.5</ele><time>2026-05-01T08:30:46.9Z</time></trkpt><trkpt lat="40.86911811769374" lon="8.841102249664011"><ele>240.33333333333334</ele><time>2026-05-01T08:30:47.9Z</time></trkpt><trkpt lat="40.86906530409698" lon="8.84098892641098"><ele>241.16666666666669</ele><time>2026-05-01T08:30:48.9Z</time></trkpt><trkpt lat="40.86902986535261" lon="8.840865209973353"><ele>242.0</ele><time>2026-05-01T08:30:49.9Z</time></trkpt><trkpt lat="40.86898447117079" lon="8.84075006603671"><ele>242.6</ele><time>2026-05-01T08:30:50.9Z</time></trkpt><trkpt lat="40.868919587628156" lon="8.840629577859739"><ele>243.2</ele><time>2026-05-01T08:30:51.9Z</time></trkpt><trkpt lat="40.868869997470476" lon="8.840492072763814"><ele>243.8</ele><time>2026-05-01T08:30:52.9Z</time></trkpt><trkpt lat="40.86882409131973" lon="8.84036016976402"><ele>244.4</ele><time>2026-05-01T08:30:53.9Z</time></trkpt><trkpt lat="40.86877411355024" lon="8.840228203341024"><ele>245.0</ele><time>2026-05-01T08:30:54.9Z</time></trkpt><trkpt lat="40.86872610461782" lon="8.84007807713947"><ele>244.2</ele><time>2026-05-01T08:30:55.9Z</time></trkpt><trkpt lat="40.868656360905085" lon="8.83994361067792"><ele>243.4</ele><time>2026-05-01T08:30:56.898Z</time></trkpt><trkpt lat="40.86857367822905" lon="8.83982763507719"><ele>242.60000000000002</ele><time>2026-05-01T08:30:57.898Z</time></trkpt><trkpt lat="40.868507386230704" lon="8.839718317242871"><ele>241.8</ele><time>2026-05-01T08:30:58.898Z</time></trkpt><trkpt lat="40.86845398089099" lon="8.83961087628171"><ele>241.0</ele><time>2026-05-01T08:30:59.899Z</time></trkpt><trkpt lat="40.86839718196966" lon="8.839517890503942"><ele>241.0</ele><time>2026-05-01T08:31:00.898Z</time></trkpt><trkpt lat="40.86835560976137" lon="8.83943686140373"><ele>241.00000000000003</ele><time>2026-05-01T08:31:01.898Z</time></trkpt><trkpt lat="40.868333300503934" lon="8.839296697788019"><ele>241.00000000000003</ele><time>2026-05-01T08:31:03.898Z</time></trkpt><trkpt lat="40.86837064144081" lon="8.83912028544057"><ele>241.0</ele><time>2026-05-01T08:31:05.898Z</time></trkpt><trkpt lat="40.868393572301834" lon="8.838991866776462"><ele>241.0</ele><time>2026-05-01T08:31:06.897Z</time></trkpt><trkpt lat="40.86841009377324" lon="8.838871447773078"><ele>241.20000000000002</ele><time>2026-05-01T08:31:07.897Z</time></trkpt><trkpt lat="40.86843380140986" lon="8.838740844727967"><ele>241.40000000000003</ele><time>2026-05-01T08:31:08.898Z</time></trkpt><trkpt lat="40.868455496784414" lon="8.838622514099338"><ele>241.6</ele><time>2026-05-01T08:31:09.898Z</time></trkpt><trkpt lat="40.86847626926121" lon="8.838516245086002"><ele>241.8</ele><time>2026-05-01T08:31:10.898Z</time></trkpt><trkpt lat="40.86849782530053" lon="8.838386211100932"><ele>242.0</ele><time>2026-05-01T08:31:11.898Z</time></trkpt><trkpt lat="40.86851900098875" lon="8.838255193003194"><ele>245.2</ele><time>2026-05-01T08:31:12.898Z</time></trkpt><trkpt lat="40.86854380485199" lon="8.838129605161361"><ele>248.39999999999998</ele><time>2026-05-01T08:31:13.898Z</time></trkpt><trkpt lat="40.86856548694405" lon="8.838000035130863"><ele>251.60000000000002</ele><time>2026-05-01T08:31:14.898Z</time></trkpt><trkpt lat="40.86859173530841" lon="8.83785542583066"><ele>254.8</ele><time>2026-05-01T08:31:15.898Z</time></trkpt><trkpt lat="40.86861881282342" lon="8.837709523682834"><ele>258.0</ele><time>2026-05-01T08:31:16.898Z</time></trkpt><trkpt lat="40.86864874364051" lon="8.837564076532576"><ele>259.5</ele><time>2026-05-01T08:31:17.898Z</time></trkpt><trkpt lat="40.868676062783045" lon="8.837411176272203"><ele>261.0</ele><time>2026-05-01T08:31:18.898Z</time></trkpt><trkpt lat="40.86870665754713" lon="8.837259170209267"><ele>262.5</ele><time>2026-05-01T08:31:19.898Z</time></trkpt><trkpt lat="40.86873559180291" lon="8.837108621166417"><ele>264.0</ele><time>2026-05-01T08:31:20.898Z</time></trkpt><trkpt lat="40.86875839113371" lon="8.836955036319871"><ele>264.0</ele><time>2026-05-01T08:31:21.898Z</time></trkpt><trkpt lat="40.86878389382679" lon="8.836792970014534"><ele>264.0</ele><time>2026-05-01T08:31:22.898Z</time></trkpt><trkpt lat="40.8688100720165" lon="8.836637885950447"><ele>264.0</ele><time>2026-05-01T08:31:23.898Z</time></trkpt><trkpt lat="40.86884287578857" lon="8.836486665032186"><ele>264.0</ele><time>2026-05-01T08:31:24.898Z</time></trkpt><trkpt lat="40.868868879798384" lon="8.836330040701037"><ele>264.0</ele><time>2026-05-01T08:31:25.898Z</time></trkpt><trkpt lat="40.86889773291292" lon="8.836178482184222"><ele>264.0</ele><time>2026-05-01T08:31:26.898Z</time></trkpt><trkpt lat="40.868924236181535" lon="8.836023029401806"><ele>264.0</ele><time>2026-05-01T08:31:27.898Z</time></trkpt><trkpt lat="40.868949309613" lon="8.835867362642878"><ele>264.0</ele><time>2026-05-01T08:31:28.898Z</time></trkpt><trkpt lat="40.86897490382325" lon="8.835715282487074"><ele>264.25</ele><time>2026-05-01T08:31:29.898Z</time></trkpt><trkpt lat="40.86900150024495" lon="8.835560650284712"><ele>264.5</ele><time>2026-05-01T08:31:30.898Z</time></trkpt><trkpt lat="40.86902373876228" lon="8.835407233980963"><ele>264.75</ele><time>2026-05-01T08:31:31.898Z</time></trkpt><trkpt lat="40.86905019151601" lon="8.835268367367714"><ele>265.0</ele><time>2026-05-01T08:31:32.898Z</time></trkpt><trkpt lat="40.86907557164557" lon="8.835134648151422"><ele>265.8</ele><time>2026-05-01T08:31:33.898Z</time></trkpt><trkpt lat="40.8690990585202" lon="8.834998384932343"><ele>266.6</ele><time>2026-05-01T08:31:34.898Z</time></trkpt><trkpt lat="40.869122416386396" lon="8.83485348007423"><ele>267.4</ele><time>2026-05-01T08:31:35.898Z</time></trkpt><trkpt lat="40.86914338719006" lon="8.834716061168058"><ele>268.2</ele><time>2026-05-01T08:31:36.898Z</time></trkpt><trkpt lat="40.86917171210187" lon="8.834582448011762"><ele>269.0</ele><time>2026-05-01T08:31:37.898Z</time></trkpt><trkpt lat="40.86920768150232" lon="8.834469714935365"><ele>269.0</ele><time>2026-05-01T08:31:38.898Z</time></trkpt><trkpt lat="40.86925658350434" lon="8.834343023912421"><ele>269.0</ele><time>2026-05-01T08:31:39.898Z</time></trkpt><trkpt lat="40.869316188886984" lon="8.834234436819012"><ele>269.0</ele><time>2026-05-01T08:31:40.898Z</time></trkpt><trkpt lat="40.86937828900794" lon="8.83411299623089"><ele>269.0</ele><time>2026-05-01T08:31:41.898Z</time></trkpt><trkpt lat="40.869435596369506" lon="8.834002946195165"><ele>269.0</ele><time>2026-05-01T08:31:42.898Z</time></trkpt><trkpt lat="40.86949306228813" lon="8.83387840855237"><ele>270.8</ele><time>2026-05-01T08:31:43.898Z</time></trkpt><trkpt lat="40.869551440074275" lon="8.833759075988192"><ele>272.59999999999997</ele><time>2026-05-01T08:31:44.898Z</time></trkpt><trkpt lat="40.86961304765696" lon="8.833635897998862"><ele>274.4</ele><time>2026-05-01T08:31:45.898Z</time></trkpt><trkpt lat="40.869671771096996" lon="8.83351431436614"><ele>276.2</ele><time>2026-05-01T08:31:46.898Z</time></trkpt><trkpt lat="40.86973190331468" lon="8.833392928394257"><ele>278.0</ele><time>2026-05-01T08:31:47.898Z</time></trkpt><trkpt lat="40.86978390112472" lon="8.833284009436888"><ele>278.0</ele><time>2026-05-01T08:31:48.898Z</time></trkpt><trkpt lat="40.86981518878769" lon="8.833176118421255"><ele>278.0</ele><time>2026-05-01T08:31:49.898Z</time></trkpt><trkpt lat="40.86983681290692" lon="8.833050818736996"><ele>278.0</ele><time>2026-05-01T08:31:50.898Z</time></trkpt><trkpt lat="40.8698782664266" lon="8.83291953218916"><ele>278.0</ele><time>2026-05-01T08:31:51.898Z</time></trkpt><trkpt lat="40.86991209647727" lon="8.83277397658999"><ele>278.0</ele><time>2026-05-01T08:31:52.898Z</time></trkpt><trkpt lat="40.869952186132814" lon="8.832630290974324"><ele>278.2</ele><time>2026-05-01T08:31:53.898Z</time></trkpt><trkpt lat="40.86998341029478" lon="8.832488230511192"><ele>278.4</ele><time>2026-05-01T08:31:54.898Z</time></trkpt><trkpt lat="40.87000892716269" lon="8.83234105898787"><ele>278.59999999999997</ele><time>2026-05-01T08:31:55.897Z</time></trkpt><trkpt lat="40.870027911552185" lon="8.83220226116969"><ele>278.8</ele><time>2026-05-01T08:31:56.897Z</time></trkpt><trkpt lat="40.87005056446058" lon="8.832071453745181"><ele>279.0</ele><time>2026-05-01T08:31:57.897Z</time></trkpt><trkpt lat="40.870066431035845" lon="8.831945472737457"><ele>279.0</ele><time>2026-05-01T08:31:58.897Z</time></trkpt><trkpt lat="40.8700743881457" lon="8.831820970794316"><ele>279.0</ele><time>2026-05-01T08:31:59.897Z</time></trkpt><trkpt lat="40.87007697870278" lon="8.831717070475744"><ele>279.0</ele><time>2026-05-01T08:32:00.897Z</time></trkpt><trkpt lat="40.87008101222842" lon="8.831614567474647"><ele>279.0</ele><time>2026-05-01T08:32:01.897Z</time></trkpt><trkpt lat="40.87011776509649" lon="8.831513198544203"><ele>279.0</ele><time>2026-05-01T08:32:03.897Z</time></trkpt><trkpt lat="40.87019821994422" lon="8.831495239933696"><ele>279.0</ele><time>2026-05-01T08:32:05.897Z</time></trkpt><trkpt lat="40.87027123920089" lon="8.831489083252553"><ele>278.8</ele><time>2026-05-01T08:32:06.897Z</time></trkpt><trkpt lat="40.87036455929536" lon="8.831482279876488"><ele>278.59999999999997</ele><time>2026-05-01T08:32:07.897Z</time></trkpt><trkpt lat="40.87048241011561" lon="8.831452659681604"><ele>278.4</ele><time>2026-05-01T08:32:08.897Z</time></trkpt><trkpt lat="40.870597985542155" lon="8.831428581187133"><ele>278.2</ele><time>2026-05-01T08:32:09.897Z</time></trkpt><trkpt lat="40.87071486446337" lon="8.831413108279445"><ele>278.0</ele><time>2026-05-01T08:32:10.897Z</time></trkpt><trkpt lat="40.87080911211581" lon="8.831403599737026"><ele>278.0</ele><time>2026-05-01T08:32:11.897Z</time></trkpt><trkpt lat="40.87088514338954" lon="8.831386499728971"><ele>278.0</ele><time>2026-05-01T08:32:12.897Z</time></trkpt><trkpt lat="40.87098558126675" lon="8.83131871566517"><ele>278.0</ele><time>2026-05-01T08:32:14.897Z</time></trkpt><trkpt lat="40.871038880345225" lon="8.831248016912893"><ele>278.0</ele><time>2026-05-01T08:32:15.897Z</time></trkpt><trkpt lat="40.871098395892155" lon="8.8311754188968"><ele>278.0</ele><time>2026-05-01T08:32:16.897Z</time></trkpt><trkpt lat="40.87118019000347" lon="8.831111828888305"><ele>278.0</ele><time>2026-05-01T08:32:17.897Z</time></trkpt><trkpt lat="40.87125987057285" lon="8.831061486022477"><ele>278.6666666666667</ele><time>2026-05-01T08:32:18.897Z</time></trkpt><trkpt lat="40.871362707204334" lon="8.831002679981383"><ele>279.33333333333337</ele><time>2026-05-01T08:32:19.897Z</time></trkpt><trkpt lat="40.87145373200127" lon="8.830942033896823"><ele>280.0</ele><time>2026-05-01T08:32:20.897Z</time></trkpt><trkpt lat="40.87151976738434" lon="8.83086365479338"><ele>280.6666666666667</ele><time>2026-05-01T08:32:21.897Z</time></trkpt><trkpt lat="40.87157398318421" lon="8.830796717073367"><ele>281.3333333333333</ele><time>2026-05-01T08:32:22.897Z</time></trkpt><trkpt lat="40.8716085536461" lon="8.830725586221794"><ele>282.0</ele><time>2026-05-01T08:32:23.897Z</time></trkpt><trkpt lat="40.87162846122845" lon="8.830560166879847"><ele>283.0</ele><time>2026-05-01T08:32:25.897Z</time></trkpt><trkpt lat="40.87162107443175" lon="8.830452767694599"><ele>284.0</ele><time>2026-05-01T08:32:26.897Z</time></trkpt><trkpt lat="40.87163399604183" lon="8.83031110937805"><ele>285.0</ele><time>2026-05-01T08:32:27.897Z</time></trkpt><trkpt lat="40.87164706665828" lon="8.830154878830744"><ele>286.0</ele><time>2026-05-01T08:32:28.897Z</time></trkpt><trkpt lat="40.871681271821814" lon="8.829999295755815"><ele>287.0</ele><time>2026-05-01T08:32:29.897Z</time></trkpt><trkpt lat="40.87171837136315" lon="8.829839065767274"><ele>287.6</ele><time>2026-05-01T08:32:30.897Z</time></trkpt><trkpt lat="40.871750505288375" lon="8.829700357101622"><ele>288.2</ele><time>2026-05-01T08:32:31.897Z</time></trkpt><trkpt lat="40.871776131222255" lon="8.829554787696042"><ele>288.8</ele><time>2026-05-01T08:32:32.897Z</time></trkpt><trkpt lat="40.87179514629178" lon="8.829417759961729"><ele>289.4</ele><time>2026-05-01T08:32:33.897Z</time></trkpt><trkpt lat="40.871812486050835" lon="8.829285348250314"><ele>290.0</ele><time>2026-05-01T08:32:34.897Z</time></trkpt><trkpt lat="40.871848359378305" lon="8.829160913019942"><ele>288.6</ele><time>2026-05-01T08:32:35.897Z</time></trkpt><trkpt lat="40.871909438421426" lon="8.829052807850477"><ele>287.2</ele><time>2026-05-01T08:32:36.897Z</time></trkpt><trkpt lat="40.87198120814801" lon="8.828949683948286"><ele>285.8</ele><time>2026-05-01T08:32:37.897Z</time></trkpt><trkpt lat="40.87203792819315" lon="8.82884281684976"><ele>284.4</ele><time>2026-05-01T08:32:38.897Z</time></trkpt><trkpt lat="40.87208924800325" lon="8.828717807867712"><ele>283.0</ele><time>2026-05-01T08:32:39.897Z</time></trkpt><trkpt lat="40.87213376433472" lon="8.828577026429494"><ele>285.5</ele><time>2026-05-01T08:32:40.897Z</time></trkpt><trkpt lat="40.87218681477352" lon="8.82842997986296"><ele>288.0</ele><time>2026-05-01T08:32:41.897Z</time></trkpt><trkpt lat="40.872243476551986" lon="8.82826087447889"><ele>290.5</ele><time>2026-05-01T08:32:42.897Z</time></trkpt><trkpt lat="40.87230523149674" lon="8.828108608693634"><ele>293.0</ele><time>2026-05-01T08:32:43.897Z</time></trkpt><trkpt lat="40.87237050433217" lon="8.827946536794835"><ele>293.0</ele><time>2026-05-01T08:32:44.897Z</time></trkpt><trkpt lat="40.872427185593516" lon="8.82780279138645"><ele>293.0</ele><time>2026-05-01T08:32:45.897Z</time></trkpt><trkpt lat="40.872469451090176" lon="8.827676647182123"><ele>293.0</ele><time>2026-05-01T08:32:46.897Z</time></trkpt><trkpt lat="40.87249911829042" lon="8.827563533568854"><ele>293.0</ele><time>2026-05-01T08:32:47.897Z</time></trkpt><trkpt lat="40.87250978040777" lon="8.827449957877992"><ele>293.0</ele><time>2026-05-01T08:32:48.897Z</time></trkpt><trkpt lat="40.87250475564908" lon="8.827332068587815"><ele>294.25</ele><time>2026-05-01T08:32:49.897Z</time></trkpt><trkpt lat="40.872486844791716" lon="8.827194978965457"><ele>295.5</ele><time>2026-05-01T08:32:50.897Z</time></trkpt><trkpt lat="40.87246328960026" lon="8.827045757700786"><ele>296.75</ele><time>2026-05-01T08:32:51.897Z</time></trkpt><trkpt lat="40.87244607532283" lon="8.826882021273462"><ele>298.0</ele><time>2026-05-01T08:32:52.897Z</time></trkpt><trkpt lat="40.87243541899272" lon="8.826707567661845"><ele>298.5</ele><time>2026-05-01T08:32:53.897Z</time></trkpt><trkpt lat="40.87243392487859" lon="8.826531011242357"><ele>299.0</ele><time>2026-05-01T08:32:54.897Z</time></trkpt><trkpt lat="40.872442315893046" lon="8.826365176311583"><ele>299.5</ele><time>2026-05-01T08:32:55.897Z</time></trkpt><trkpt lat="40.87245726887031" lon="8.826215299351572"><ele>300.0</ele><time>2026-05-01T08:32:56.897Z</time></trkpt><trkpt lat="40.872480205367765" lon="8.82608344505565"><ele>301.5</ele><time>2026-05-01T08:32:57.897Z</time></trkpt><trkpt lat="40.87249404080869" lon="8.825937288149754"><ele>303.0</ele><time>2026-05-01T08:32:58.897Z</time></trkpt><trkpt lat="40.872515606821274" lon="8.825781844896458"><ele>304.5</ele><time>2026-05-01T08:32:59.897Z</time></trkpt><trkpt lat="40.87254628837497" lon="8.825624539577992"><ele>306.0</ele><time>2026-05-01T08:33:00.897Z</time></trkpt><trkpt lat="40.87259007653939" lon="8.825471572704396"><ele>306.5</ele><time>2026-05-01T08:33:01.897Z</time></trkpt><trkpt lat="40.87263847675856" lon="8.82531498400133"><ele>307.0</ele><time>2026-05-01T08:33:02.894Z</time></trkpt><trkpt lat="40.87269596471525" lon="8.825156952898405"><ele>307.5</ele><time>2026-05-01T08:33:03.893Z</time></trkpt><trkpt lat="40.87276121747999" lon="8.825004496150502"><ele>308.0</ele><time>2026-05-01T08:33:04.893Z</time></trkpt><trkpt lat="40.87282653102323" lon="8.824861325313964"><ele>308.0</ele><time>2026-05-01T08:33:05.894Z</time></trkpt><trkpt lat="40.872888336135226" lon="8.824737443170156"><ele>308.0</ele><time>2026-05-01T08:33:06.894Z</time></trkpt><trkpt lat="40.87295106758658" lon="8.824604225250702"><ele>308.0</ele><time>2026-05-01T08:33:07.894Z</time></trkpt><trkpt lat="40.87302323102486" lon="8.824478723001157"><ele>308.0</ele><time>2026-05-01T08:33:08.894Z</time></trkpt><trkpt lat="40.873121921333336" lon="8.82436841879517"><ele>308.5</ele><time>2026-05-01T08:33:09.894Z</time></trkpt><trkpt lat="40.87321996102698" lon="8.82423377752153"><ele>309.0</ele><time>2026-05-01T08:33:10.894Z</time></trkpt><trkpt lat="40.87330052959962" lon="8.824117693214928"><ele>309.5</ele><time>2026-05-01T08:33:11.894Z</time></trkpt><trkpt lat="40.873369722214676" lon="8.824024799511797"><ele>310.0</ele><time>2026-05-01T08:33:12.893Z</time></trkpt><trkpt lat="40.87347425562385" lon="8.823955639978431"><ele>310.0</ele><time>2026-05-01T08:33:14.894Z</time></trkpt><trkpt lat="40.87353461886282" lon="8.82391668163788"><ele>310.0</ele><time>2026-05-01T08:33:15.894Z</time></trkpt><trkpt lat="40.87359424110118" lon="8.823884616724841"><ele>310.0</ele><time>2026-05-01T08:33:16.894Z</time></trkpt><trkpt lat="40.873659434908895" lon="8.823860568242138"><ele>310.0</ele><time>2026-05-01T08:33:17.894Z</time></trkpt><trkpt lat="40.873724642019546" lon="8.823865506788376"><ele>310.0</ele><time>2026-05-01T08:33:18.894Z</time></trkpt><trkpt lat="40.873797964727785" lon="8.82387694221261"><ele>310.0</ele><time>2026-05-01T08:33:19.894Z</time></trkpt><trkpt lat="40.87387860019789" lon="8.82387402299393"><ele>310.0</ele><time>2026-05-01T08:33:20.894Z</time></trkpt><trkpt lat="40.87395968782044" lon="8.823860634615198"><ele>310.0</ele><time>2026-05-01T08:33:21.894Z</time></trkpt><trkpt lat="40.87404022034028" lon="8.823841370932222"><ele>310.0</ele><time>2026-05-01T08:33:22.894Z</time></trkpt><trkpt lat="40.874125706213185" lon="8.823806615470357"><ele>310.0</ele><time>2026-05-01T08:33:23.894Z</time></trkpt><trkpt lat="40.87420920581963" lon="8.823763930972172"><ele>310.0</ele><time>2026-05-01T08:33:24.894Z</time></trkpt><trkpt lat="40.87428697831318" lon="8.823709047186163"><ele>310.0</ele><time>2026-05-01T08:33:25.894Z</time></trkpt><trkpt lat="40.87435856361942" lon="8.823640084654864"><ele>310.0</ele><time>2026-05-01T08:33:26.894Z</time></trkpt><trkpt lat="40.87441675648921" lon="8.82353239874434"><ele>310.8</ele><time>2026-05-01T08:33:27.894Z</time></trkpt><trkpt lat="40.874491398481425" lon="8.823433255098841"><ele>311.6</ele><time>2026-05-01T08:33:28.894Z</time></trkpt><trkpt lat="40.87457908326216" lon="8.823354324187735"><ele>312.4</ele><time>2026-05-01T08:33:29.894Z</time></trkpt><trkpt lat="40.8746544785488" lon="8.823292986997755"><ele>313.2</ele><time>2026-05-01T08:33:30.894Z</time></trkpt><trkpt lat="40.87472480176078" lon="8.82322814230675"><ele>314.0</ele><time>2026-05-01T08:33:31.894Z</time></trkpt><trkpt lat="40.8747797414324" lon="8.823148131617868"><ele>314.0</ele><time>2026-05-01T08:33:32.894Z</time></trkpt><trkpt lat="40.87481484468111" lon="8.823047308776289"><ele>314.0</ele><time>2026-05-01T08:33:33.894Z</time></trkpt><trkpt lat="40.87486571454234" lon="8.82295242775728"><ele>314.0</ele><time>2026-05-01T08:33:34.894Z</time></trkpt><trkpt lat="40.87491842889522" lon="8.822838662134771"><ele>314.0</ele><time>2026-05-01T08:33:35.894Z</time></trkpt><trkpt lat="40.874974292989904" lon="8.822718559603059"><ele>314.0</ele><time>2026-05-01T08:33:36.894Z</time></trkpt><trkpt lat="40.875051080226164" lon="8.822626150209082"><ele>314.8</ele><time>2026-05-01T08:33:37.894Z</time></trkpt><trkpt lat="40.875106556699315" lon="8.822536832240564"><ele>315.59999999999997</ele><time>2026-05-01T08:33:38.894Z</time></trkpt><trkpt lat="40.87516175869058" lon="8.82243835597428"><ele>316.4</ele><time>2026-05-01T08:33:39.894Z</time></trkpt><trkpt lat="40.875208263737065" lon="8.822328719178147"><ele>317.2</ele><time>2026-05-01T08:33:40.894Z</time></trkpt><trkpt lat="40.87523524272192" lon="8.822204003162081"><ele>318.0</ele><time>2026-05-01T08:33:41.894Z</time></trkpt><trkpt lat="40.87524006268632" lon="8.822083445579986"><ele>318.0</ele><time>2026-05-01T08:33:42.894Z</time></trkpt><trkpt lat="40.87527648719816" lon="8.82195810134222"><ele>318.0</ele><time>2026-05-01T08:33:43.894Z</time></trkpt><trkpt lat="40.87530340784825" lon="8.82182796857854"><ele>318.0</ele><time>2026-05-01T08:33:44.894Z</time></trkpt><trkpt lat="40.87533519595925" lon="8.821684922219873"><ele>318.0</ele><time>2026-05-01T08:33:45.894Z</time></trkpt><trkpt lat="40.87536661739878" lon="8.821533055167732"><ele>318.0</ele><time>2026-05-01T08:33:46.894Z</time></trkpt><trkpt lat="40.87539635466901" lon="8.821385640082784"><ele>319.2</ele><time>2026-05-01T08:33:47.894Z</time></trkpt><trkpt lat="40.87541924895063" lon="8.821252611990522"><ele>320.4</ele><time>2026-05-01T08:33:48.894Z</time></trkpt><trkpt lat="40.87543788855254" lon="8.821122645707408"><ele>321.59999999999997</ele><time>2026-05-01T08:33:49.893Z</time></trkpt><trkpt lat="40.87545270496492" lon="8.821001069814859"><ele>322.8</ele><time>2026-05-01T08:33:50.893Z</time></trkpt><trkpt lat="40.87545047603881" lon="8.820863944206247"><ele>324.0</ele><time>2026-05-01T08:33:51.893Z</time></trkpt><trkpt lat="40.87546850240647" lon="8.820710715981821"><ele>325.4</ele><time>2026-05-01T08:33:52.893Z</time></trkpt><trkpt lat="40.87549592226406" lon="8.820575141286541"><ele>326.79999999999995</ele><time>2026-05-01T08:33:53.893Z</time></trkpt><trkpt lat="40.87552943284776" lon="8.820446645717672"><ele>328.20000000000005</ele><time>2026-05-01T08:33:54.893Z</time></trkpt><trkpt lat="40.87556749833099" lon="8.820313631960541"><ele>329.6</ele><time>2026-05-01T08:33:55.893Z</time></trkpt><trkpt lat="40.87560160825691" lon="8.82018111627626"><ele>331.0</ele><time>2026-05-01T08:33:56.893Z</time></trkpt><trkpt lat="40.875628440033616" lon="8.820064383146654"><ele>332.6</ele><time>2026-05-01T08:33:57.893Z</time></trkpt><trkpt lat="40.875653917195145" lon="8.819958253824526"><ele>334.20000000000005</ele><time>2026-05-01T08:33:58.893Z</time></trkpt><trkpt lat="40.87565750621637" lon="8.81981502428738"><ele>335.79999999999995</ele><time>2026-05-01T08:33:59.893Z</time></trkpt><trkpt lat="40.87567957506691" lon="8.81968879286168"><ele>337.4</ele><time>2026-05-01T08:34:00.893Z</time></trkpt><trkpt lat="40.87570176927053" lon="8.81956322279254"><ele>339.0</ele><time>2026-05-01T08:34:01.893Z</time></trkpt><trkpt lat="40.87571521868342" lon="8.819419005014657"><ele>340.4</ele><time>2026-05-01T08:34:02.893Z</time></trkpt><trkpt lat="40.87570092934375" lon="8.819292719408166"><ele>341.79999999999995</ele><time>2026-05-01T08:34:03.893Z</time></trkpt><trkpt lat="40.875673284229585" lon="8.819177541457522"><ele>343.20000000000005</ele><time>2026-05-01T08:34:04.893Z</time></trkpt><trkpt lat="40.87563593245529" lon="8.819047692338705"><ele>344.6</ele><time>2026-05-01T08:34:05.893Z</time></trkpt><trkpt lat="40.875598150089175" lon="8.818877554638886"><ele>346.0</ele><time>2026-05-01T08:34:06.893Z</time></trkpt><trkpt lat="40.87556883480959" lon="8.818677999696718"><ele>346.0</ele><time>2026-05-01T08:34:07.893Z</time></trkpt><trkpt lat="40.87555546291892" lon="8.81851882838234"><ele>346.0</ele><time>2026-05-01T08:34:08.893Z</time></trkpt><trkpt lat="40.8755647350546" lon="8.81834753749761"><ele>346.0</ele><time>2026-05-01T08:34:09.893Z</time></trkpt><trkpt lat="40.87557249286823" lon="8.818154243321969"><ele>346.0</ele><time>2026-05-01T08:34:10.893Z</time></trkpt><trkpt lat="40.875584177408975" lon="8.817919170004796"><ele>346.75</ele><time>2026-05-01T08:34:11.893Z</time></trkpt><trkpt lat="40.875550735337406" lon="8.817699479388864"><ele>347.5</ele><time>2026-05-01T08:34:12.893Z</time></trkpt><trkpt lat="40.87553420307126" lon="8.817467546931248"><ele>348.25</ele><time>2026-05-01T08:34:13.893Z</time></trkpt><trkpt lat="40.875542640957775" lon="8.817592357789533"><ele>349.0</ele><time>2026-05-01T08:34:14.893Z</time></trkpt><trkpt lat="40.8755286507732" lon="8.817451979572333"><ele>350.4</ele><time>2026-05-01T08:34:15.893Z</time></trkpt><trkpt lat="40.8755111941277" lon="8.817322684488964"><ele>351.79999999999995</ele><time>2026-05-01T08:34:16.893Z</time></trkpt><trkpt lat="40.87547786202608" lon="8.817198169775773"><ele>353.20000000000005</ele><time>2026-05-01T08:34:17.893Z</time></trkpt><trkpt lat="40.87543066091556" lon="8.817076654649593"><ele>354.6</ele><time>2026-05-01T08:34:18.893Z</time></trkpt><trkpt lat="40.87538887158654" lon="8.816961833650462"><ele>356.0</ele><time>2026-05-01T08:34:19.893Z</time></trkpt><trkpt lat="40.87533344529955" lon="8.81686644026042"><ele>356.0</ele><time>2026-05-01T08:34:20.893Z</time></trkpt><trkpt lat="40.87525928842263" lon="8.816799876045765"><ele>356.0</ele><time>2026-05-01T08:34:22.893Z</time></trkpt><trkpt lat="40.87534577103278" lon="8.816833058232685"><ele>356.0</ele><time>2026-05-01T08:34:26.893Z</time></trkpt><trkpt lat="40.875492920875814" lon="8.816861024199877"><ele>356.0</ele><time>2026-05-01T08:34:28.893Z</time></trkpt><trkpt lat="40.87558377086367" lon="8.816902059128877"><ele>356.0</ele><time>2026-05-01T08:34:29.893Z</time></trkpt><trkpt lat="40.87568054968802" lon="8.816954540436036"><ele>356.0</ele><time>2026-05-01T08:34:30.893Z</time></trkpt><trkpt lat="40.87577191139278" lon="8.817023300235972"><ele>356.0</ele><time>2026-05-01T08:34:31.893Z</time></trkpt><trkpt lat="40.87587122594067" lon="8.81707842973965"><ele>356.0</ele><time>2026-05-01T08:34:32.893Z</time></trkpt><trkpt lat="40.87595687717733" lon="8.817143097924163"><ele>356.0</ele><time>2026-05-01T08:34:33.893Z</time></trkpt><trkpt lat="40.8760421692892" lon="8.817208780968448"><ele>356.0</ele><time>2026-05-01T08:34:34.893Z</time></trkpt><trkpt lat="40.87613651588073" lon="8.817271364838348"><ele>356.25</ele><time>2026-05-01T08:34:35.893Z</time></trkpt><trkpt lat="40.876236752753044" lon="8.817332809636566"><ele>356.5</ele><time>2026-05-01T08:34:36.893Z</time></trkpt><trkpt lat="40.87635474001849" lon="8.817406976560859"><ele>356.75</ele><time>2026-05-01T08:34:37.893Z</time></trkpt><trkpt lat="40.87645692489347" lon="8.817467559364765"><ele>357.0</ele><time>2026-05-01T08:34:38.893Z</time></trkpt><trkpt lat="40.87657066653963" lon="8.817540373369658"><ele>357.0</ele><time>2026-05-01T08:34:39.893Z</time></trkpt><trkpt lat="40.87668648939995" lon="8.817612817060688"><ele>357.0</ele><time>2026-05-01T08:34:40.893Z</time></trkpt><trkpt lat="40.87679518508048" lon="8.817677131662576"><ele>357.0</ele><time>2026-05-01T08:34:41.893Z</time></trkpt><trkpt lat="40.87690613903845" lon="8.81774610595256"><ele>357.0</ele><time>2026-05-01T08:34:42.893Z</time></trkpt><trkpt lat="40.877014204653086" lon="8.817825441320286"><ele>354.0</ele><time>2026-05-01T08:34:43.893Z</time></trkpt><trkpt lat="40.877117186785625" lon="8.817902137956448"><ele>351.0</ele><time>2026-05-01T08:34:44.893Z</time></trkpt><trkpt lat="40.87722618358887" lon="8.81798693977167"><ele>348.0</ele><time>2026-05-01T08:34:45.893Z</time></trkpt><trkpt lat="40.877342958154216" lon="8.81806674485645"><ele>345.0</ele><time>2026-05-01T08:34:46.893Z</time></trkpt><trkpt lat="40.87747692445966" lon="8.818118603873186"><ele>343.5</ele><time>2026-05-01T08:34:47.893Z</time></trkpt><trkpt lat="40.87760600404179" lon="8.818175636496061"><ele>342.0</ele><time>2026-05-01T08:34:48.893Z</time></trkpt><trkpt lat="40.87774551763926" lon="8.818217444317979"><ele>340.5</ele><time>2026-05-01T08:34:49.893Z</time></trkpt><trkpt lat="40.87789257130922" lon="8.818257515599422"><ele>339.0</ele><time>2026-05-01T08:34:50.893Z</time></trkpt><trkpt lat="40.87804245450134" lon="8.81828756166676"><ele>339.0</ele><time>2026-05-01T08:34:51.893Z</time></trkpt><trkpt lat="40.87818671095575" lon="8.818318340873901"><ele>339.0</ele><time>2026-05-01T08:34:52.893Z</time></trkpt><trkpt lat="40.87833143566897" lon="8.818351776924475"><ele>339.0</ele><time>2026-05-01T08:34:53.893Z</time></trkpt><trkpt lat="40.878476257340026" lon="8.818389901373276"><ele>339.0</ele><time>2026-05-01T08:34:54.893Z</time></trkpt><trkpt lat="40.878620930287475" lon="8.81843887438885"><ele>337.5</ele><time>2026-05-01T08:34:55.893Z</time></trkpt><trkpt lat="40.87875419852875" lon="8.818506638427287"><ele>336.0</ele><time>2026-05-01T08:34:56.893Z</time></trkpt><trkpt lat="40.87887491181861" lon="8.818600122125922"><ele>334.5</ele><time>2026-05-01T08:34:57.893Z</time></trkpt><trkpt lat="40.878978104548715" lon="8.818697581782391"><ele>333.0</ele><time>2026-05-01T08:34:58.893Z</time></trkpt><trkpt lat="40.879065040445155" lon="8.818794804104266"><ele>333.0</ele><time>2026-05-01T08:34:59.893Z</time></trkpt><trkpt lat="40.87914116085232" lon="8.818897614277299"><ele>333.0</ele><time>2026-05-01T08:35:00.893Z</time></trkpt><trkpt lat="40.87919428395172" lon="8.819030541935797"><ele>333.0</ele><time>2026-05-01T08:35:01.893Z</time></trkpt><trkpt lat="40.879250922856805" lon="8.819169082294811"><ele>333.0</ele><time>2026-05-01T08:35:02.893Z</time></trkpt><trkpt lat="40.879308433109955" lon="8.819304171053751"><ele>332.1666666666667</ele><time>2026-05-01T08:35:03.893Z</time></trkpt><trkpt lat="40.879366741466015" lon="8.819392265147867"><ele>331.3333333333333</ele><time>2026-05-01T08:35:04.893Z</time></trkpt><trkpt lat="40.879431451916396" lon="8.81944256906864"><ele>330.5</ele><time>2026-05-01T08:35:05.893Z</time></trkpt><trkpt lat="40.87950770273748" lon="8.819457040676067"><ele>329.66666666666663</ele><time>2026-05-01T08:35:06.892Z</time></trkpt><trkpt lat="40.87957071490361" lon="8.819435791221196"><ele>328.8333333333333</ele><time>2026-05-01T08:35:07.892Z</time></trkpt><trkpt lat="40.87964940592603" lon="8.819319612143879"><ele>328.0</ele><time>2026-05-01T08:35:09.89Z</time></trkpt><trkpt lat="40.879678915385924" lon="8.819236699264064"><ele>328.0</ele><time>2026-05-01T08:35:10.89Z</time></trkpt><trkpt lat="40.87972270238449" lon="8.819139262222302"><ele>328.0</ele><time>2026-05-01T08:35:11.89Z</time></trkpt><trkpt lat="40.879766603618464" lon="8.819029480707426"><ele>328.0</ele><time>2026-05-01T08:35:12.889Z</time></trkpt><trkpt lat="40.879815762054186" lon="8.81891526102456"><ele>328.0</ele><time>2026-05-01T08:35:13.889Z</time></trkpt><trkpt lat="40.87986633855182" lon="8.81880780977141"><ele>328.0</ele><time>2026-05-01T08:35:14.89Z</time></trkpt><trkpt lat="40.879925037638195" lon="8.818732933648526"><ele>328.0</ele><time>2026-05-01T08:35:15.89Z</time></trkpt><trkpt lat="40.87999551311381" lon="8.818701538804397"><ele>328.0</ele><time>2026-05-01T08:35:16.89Z</time></trkpt><trkpt lat="40.88006581449516" lon="8.8186999773076"><ele>328.0</ele><time>2026-05-01T08:35:17.889Z</time></trkpt><trkpt lat="40.88011996521409" lon="8.818779117989557"><ele>328.0</ele><time>2026-05-01T08:35:18.889Z</time></trkpt><trkpt lat="40.88018609898241" lon="8.818832118568327"><ele>328.0</ele><time>2026-05-01T08:35:19.889Z</time></trkpt><trkpt lat="40.88027581839027" lon="8.818887851038054"><ele>328.0</ele><time>2026-05-01T08:35:20.89Z</time></trkpt><trkpt lat="40.88036834731565" lon="8.818988553757759"><ele>327.5</ele><time>2026-05-01T08:35:21.889Z</time></trkpt><trkpt lat="40.88047628715556" lon="8.819095976767889"><ele>327.0</ele><time>2026-05-01T08:35:22.889Z</time></trkpt><trkpt lat="40.88059038345493" lon="8.819186175009666"><ele>326.5</ele><time>2026-05-01T08:35:23.889Z</time></trkpt><trkpt lat="40.880706593981664" lon="8.819278137591988"><ele>326.0</ele><time>2026-05-01T08:35:24.889Z</time></trkpt><trkpt lat="40.88083150751956" lon="8.8193673431688"><ele>324.5</ele><time>2026-05-01T08:35:25.889Z</time></trkpt><trkpt lat="40.88095443267145" lon="8.819462233712322"><ele>323.0</ele><time>2026-05-01T08:35:26.889Z</time></trkpt><trkpt lat="40.8810783127783" lon="8.819558316776758"><ele>321.5</ele><time>2026-05-01T08:35:27.889Z</time></trkpt><trkpt lat="40.88119910627697" lon="8.819674067820428"><ele>320.0</ele><time>2026-05-01T08:35:28.889Z</time></trkpt><trkpt lat="40.88131111473885" lon="8.819796109325203"><ele>320.0</ele><time>2026-05-01T08:35:29.889Z</time></trkpt><trkpt lat="40.88143222730022" lon="8.819917296648446"><ele>320.0</ele><time>2026-05-01T08:35:30.889Z</time></trkpt><trkpt lat="40.88155335039898" lon="8.820044335130579"><ele>320.0</ele><time>2026-05-01T08:35:31.889Z</time></trkpt><trkpt lat="40.88167308488505" lon="8.820172462779718"><ele>319.0</ele><time>2026-05-01T08:35:32.889Z</time></trkpt><trkpt lat="40.881786436593075" lon="8.820289656112553"><ele>318.0</ele><time>2026-05-01T08:35:33.889Z</time></trkpt><trkpt lat="40.88190670336498" lon="8.82039034690893"><ele>317.0</ele><time>2026-05-01T08:35:34.889Z</time></trkpt><trkpt lat="40.882036202090774" lon="8.820479232228754"><ele>316.0</ele><time>2026-05-01T08:35:35.889Z</time></trkpt><trkpt lat="40.88217776743439" lon="8.820547808597649"><ele>316.0</ele><time>2026-05-01T08:35:36.889Z</time></trkpt><trkpt lat="40.8823191536001" lon="8.820607796356313"><ele>316.0</ele><time>2026-05-01T08:35:37.889Z</time></trkpt><trkpt lat="40.88247355381702" lon="8.820669468818624"><ele>316.0</ele><time>2026-05-01T08:35:38.889Z</time></trkpt><trkpt lat="40.882620088128036" lon="8.820722606393652"><ele>318.0</ele><time>2026-05-01T08:35:39.889Z</time></trkpt><trkpt lat="40.88277095599176" lon="8.820779952187985"><ele>320.0</ele><time>2026-05-01T08:35:40.889Z</time></trkpt><trkpt lat="40.88290896734999" lon="8.820831520948886"><ele>322.0</ele><time>2026-05-01T08:35:41.889Z</time></trkpt><trkpt lat="40.883038249762215" lon="8.82088451940815"><ele>324.0</ele><time>2026-05-01T08:35:42.889Z</time></trkpt><trkpt lat="40.88316265112068" lon="8.820932535722461"><ele>322.59999999999997</ele><time>2026-05-01T08:35:43.889Z</time></trkpt><trkpt lat="40.88326301530248" lon="8.82098553499695"><ele>321.2</ele><time>2026-05-01T08:35:44.889Z</time></trkpt><trkpt lat="40.88334687585291" lon="8.821046530218899"><ele>319.79999999999995</ele><time>2026-05-01T08:35:45.889Z</time></trkpt><trkpt lat="40.883403757466056" lon="8.821148400343668"><ele>318.4</ele><time>2026-05-01T08:35:46.889Z</time></trkpt><trkpt lat="40.883426332356926" lon="8.821259159773636"><ele>317.0</ele><time>2026-05-01T08:35:47.889Z</time></trkpt><trkpt lat="40.88342780428996" lon="8.821384102849382"><ele>317.0</ele><time>2026-05-01T08:35:48.889Z</time></trkpt><trkpt lat="40.88342506778187" lon="8.821517133435275"><ele>317.0</ele><time>2026-05-01T08:35:49.889Z</time></trkpt><trkpt lat="40.88344519724522" lon="8.821657904446743"><ele>317.0</ele><time>2026-05-01T08:35:50.889Z</time></trkpt><trkpt lat="40.88345662826454" lon="8.82180188284788"><ele>317.0</ele><time>2026-05-01T08:35:51.889Z</time></trkpt><trkpt lat="40.8834871722234" lon="8.821942841326294"><ele>317.0</ele><time>2026-05-01T08:35:52.889Z</time></trkpt><trkpt lat="40.88353712401378" lon="8.822099865850902"><ele>317.25</ele><time>2026-05-01T08:35:53.889Z</time></trkpt><trkpt lat="40.883589967867756" lon="8.82226712239141"><ele>317.5</ele><time>2026-05-01T08:35:54.889Z</time></trkpt><trkpt lat="40.88365069687214" lon="8.82243004837239"><ele>317.75</ele><time>2026-05-01T08:35:55.889Z</time></trkpt><trkpt lat="40.88369912388655" lon="8.822586855451888"><ele>318.0</ele><time>2026-05-01T08:35:56.889Z</time></trkpt><trkpt lat="40.883750414010976" lon="8.822736121904335"><ele>316.5</ele><time>2026-05-01T08:35:57.889Z</time></trkpt><trkpt lat="40.88381893128753" lon="8.822872544085525"><ele>315.0</ele><time>2026-05-01T08:35:58.889Z</time></trkpt><trkpt lat="40.88389225619903" lon="8.822973195912278"><ele>313.5</ele><time>2026-05-01T08:35:59.889Z</time></trkpt><trkpt lat="40.883983679716216" lon="8.823079486235565"><ele>312.0</ele><time>2026-05-01T08:36:00.889Z</time></trkpt><trkpt lat="40.88408879709644" lon="8.823199087061582"><ele>312.0</ele><time>2026-05-01T08:36:01.889Z</time></trkpt><trkpt lat="40.88419446686401" lon="8.823327727020818"><ele>312.0</ele><time>2026-05-01T08:36:02.889Z</time></trkpt><trkpt lat="40.884306045646625" lon="8.823470334918207"><ele>312.0</ele><time>2026-05-01T08:36:03.889Z</time></trkpt><trkpt lat="40.88441613286317" lon="8.823616397782017"><ele>310.6666666666667</ele><time>2026-05-01T08:36:04.889Z</time></trkpt><trkpt lat="40.884533513695416" lon="8.823756721322596"><ele>309.33333333333337</ele><time>2026-05-01T08:36:05.889Z</time></trkpt><trkpt lat="40.8846449886932" lon="8.823894333636483"><ele>308.0</ele><time>2026-05-01T08:36:06.889Z</time></trkpt><trkpt lat="40.88474795763134" lon="8.824023830756483"><ele>308.0</ele><time>2026-05-01T08:36:07.889Z</time></trkpt><trkpt lat="40.884841869268826" lon="8.824145752267171"><ele>308.0</ele><time>2026-05-01T08:36:08.889Z</time></trkpt><trkpt lat="40.88493632415658" lon="8.82426658830087"><ele>308.0</ele><time>2026-05-01T08:36:09.889Z</time></trkpt><trkpt lat="40.88501928503151" lon="8.82437475823253"><ele>308.0</ele><time>2026-05-01T08:36:10.889Z</time></trkpt><trkpt lat="40.88509070967289" lon="8.82449354596733"><ele>306.8</ele><time>2026-05-01T08:36:11.889Z</time></trkpt><trkpt lat="40.88514142348174" lon="8.824641050554881"><ele>305.6</ele><time>2026-05-01T08:36:12.889Z</time></trkpt><trkpt lat="40.88518489709423" lon="8.824782596184631"><ele>304.4</ele><time>2026-05-01T08:36:13.889Z</time></trkpt><trkpt lat="40.885220139421335" lon="8.824909017637369"><ele>303.2</ele><time>2026-05-01T08:36:14.889Z</time></trkpt><trkpt lat="40.88525952348141" lon="8.825012761004055"><ele>302.0</ele><time>2026-05-01T08:36:15.889Z</time></trkpt><trkpt lat="40.88527902095444" lon="8.825120906783221"><ele>300.2</ele><time>2026-05-01T08:36:16.889Z</time></trkpt><trkpt lat="40.88528615642203" lon="8.825216672233209"><ele>298.4</ele><time>2026-05-01T08:36:17.889Z</time></trkpt><trkpt lat="40.88521386894723" lon="8.825328306845272"><ele>296.6</ele><time>2026-05-01T08:36:19.889Z</time></trkpt><trkpt lat="40.88508485590777" lon="8.825364137534807"><ele>294.8</ele><time>2026-05-01T08:36:21.889Z</time></trkpt><trkpt lat="40.88499805066023" lon="8.825376910505474"><ele>293.0</ele><time>2026-05-01T08:36:22.889Z</time></trkpt><trkpt lat="40.884883217663756" lon="8.825392319649687"><ele>292.5</ele><time>2026-05-01T08:36:23.889Z</time></trkpt><trkpt lat="40.8847600898066" lon="8.825425540461818"><ele>292.0</ele><time>2026-05-01T08:36:24.889Z</time></trkpt><trkpt lat="40.88462721913547" lon="8.825442051051596"><ele>291.5</ele><time>2026-05-01T08:36:25.889Z</time></trkpt><trkpt lat="40.88450606284215" lon="8.825475388320747"><ele>291.0</ele><time>2026-05-01T08:36:26.889Z</time></trkpt><trkpt lat="40.884405418239886" lon="8.825519307464598"><ele>291.0</ele><time>2026-05-01T08:36:27.889Z</time></trkpt><trkpt lat="40.884327487252854" lon="8.8255628788825"><ele>291.0</ele><time>2026-05-01T08:36:28.889Z</time></trkpt><trkpt lat="40.88427898754312" lon="8.825627706781255"><ele>291.0</ele><time>2026-05-01T08:36:29.889Z</time></trkpt><trkpt lat="40.884253664212515" lon="8.82572223724016"><ele>291.0</ele><time>2026-05-01T08:36:30.889Z</time></trkpt><trkpt lat="40.884246910545414" lon="8.8258245394474"><ele>291.0</ele><time>2026-05-01T08:36:31.888Z</time></trkpt><trkpt lat="40.88426701859685" lon="8.8259427996047"><ele>291.0</ele><time>2026-05-01T08:36:32.888Z</time></trkpt><trkpt lat="40.8843187737898" lon="8.826048492139593"><ele>288.25</ele><time>2026-05-01T08:36:33.888Z</time></trkpt><trkpt lat="40.8843909216822" lon="8.826173239121054"><ele>285.5</ele><time>2026-05-01T08:36:34.888Z</time></trkpt><trkpt lat="40.8844660811691" lon="8.826310119989786"><ele>282.75</ele><time>2026-05-01T08:36:35.888Z</time></trkpt><trkpt lat="40.88452110192631" lon="8.826465737739731"><ele>280.0</ele><time>2026-05-01T08:36:36.888Z</time></trkpt><trkpt lat="40.884591888743536" lon="8.826619339640438"><ele>280.0</ele><time>2026-05-01T08:36:37.888Z</time></trkpt><trkpt lat="40.8846618836971" lon="8.826771223273457"><ele>280.0</ele><time>2026-05-01T08:36:38.888Z</time></trkpt><trkpt lat="40.884731639463816" lon="8.826926151786525"><ele>280.0</ele><time>2026-05-01T08:36:39.888Z</time></trkpt><trkpt lat="40.88479575842897" lon="8.827080099252138"><ele>280.0</ele><time>2026-05-01T08:36:40.888Z</time></trkpt><trkpt lat="40.88487156007636" lon="8.82722696700559"><ele>280.0</ele><time>2026-05-01T08:36:41.888Z</time></trkpt><trkpt lat="40.88495257888618" lon="8.827370666489806"><ele>280.0</ele><time>2026-05-01T08:36:42.888Z</time></trkpt><trkpt lat="40.88504267976456" lon="8.827504097568422"><ele>280.0</ele><time>2026-05-01T08:36:43.888Z</time></trkpt><trkpt lat="40.88515204014183" lon="8.82763197749172"><ele>280.0</ele><time>2026-05-01T08:36:44.888Z</time></trkpt><trkpt lat="40.88526261126336" lon="8.82775319998612"><ele>278.0</ele><time>2026-05-01T08:36:45.888Z</time></trkpt><trkpt lat="40.88537000780794" lon="8.827881954015412"><ele>276.0</ele><time>2026-05-01T08:36:46.888Z</time></trkpt><trkpt lat="40.88546810441343" lon="8.828001598447669"><ele>274.0</ele><time>2026-05-01T08:36:47.888Z</time></trkpt><trkpt lat="40.885567691770355" lon="8.828122554198425"><ele>272.0</ele><time>2026-05-01T08:36:48.888Z</time></trkpt><trkpt lat="40.885667390508914" lon="8.828199937575006"><ele>272.0</ele><time>2026-05-01T08:36:49.888Z</time></trkpt><trkpt lat="40.88578709484966" lon="8.828275454858149"><ele>272.0</ele><time>2026-05-01T08:36:50.888Z</time></trkpt><trkpt lat="40.88591616444577" lon="8.828333407159468"><ele>272.0</ele><time>2026-05-01T08:36:51.888Z</time></trkpt><trkpt lat="40.88604506231432" lon="8.828386258771205"><ele>272.0</ele><time>2026-05-01T08:36:52.888Z</time></trkpt><trkpt lat="40.88617804273607" lon="8.82843420943403"><ele>270.5</ele><time>2026-05-01T08:36:53.888Z</time></trkpt><trkpt lat="40.88631692143814" lon="8.828488223142644"><ele>269.0</ele><time>2026-05-01T08:36:54.888Z</time></trkpt><trkpt lat="40.886456595020334" lon="8.828536775714882"><ele>267.5</ele><time>2026-05-01T08:36:55.888Z</time></trkpt><trkpt lat="40.88658283636118" lon="8.828589302230478"><ele>266.0</ele><time>2026-05-01T08:36:56.888Z</time></trkpt><trkpt lat="40.88669931354743" lon="8.828636018557251"><ele>264.2</ele><time>2026-05-01T08:36:57.888Z</time></trkpt><trkpt lat="40.8867907730763" lon="8.828682200560753"><ele>262.40000000000003</ele><time>2026-05-01T08:36:58.888Z</time></trkpt><trkpt lat="40.88686406232365" lon="8.828734446263752"><ele>260.6</ele><time>2026-05-01T08:36:59.888Z</time></trkpt><trkpt lat="40.886926535286804" lon="8.828819289245473"><ele>258.8</ele><time>2026-05-01T08:37:00.888Z</time></trkpt><trkpt lat="40.886992987900285" lon="8.828932760358597"><ele>257.0</ele><time>2026-05-01T08:37:01.888Z</time></trkpt><trkpt lat="40.88703621463012" lon="8.829072371926047"><ele>257.0</ele><time>2026-05-01T08:37:02.888Z</time></trkpt><trkpt lat="40.887090438372205" lon="8.829207976071867"><ele>257.0</ele><time>2026-05-01T08:37:03.888Z</time></trkpt><trkpt lat="40.88715195056466" lon="8.829358567164489"><ele>257.0</ele><time>2026-05-01T08:37:04.888Z</time></trkpt><trkpt lat="40.88721991358563" lon="8.829470311868548"><ele>257.0</ele><time>2026-05-01T08:37:05.888Z</time></trkpt><trkpt lat="40.88727793436929" lon="8.829555251309097"><ele>257.0</ele><time>2026-05-01T08:37:06.888Z</time></trkpt><trkpt lat="40.88734824089522" lon="8.829609224972343"><ele>257.2</ele><time>2026-05-01T08:37:07.888Z</time></trkpt><trkpt lat="40.887433101490046" lon="8.829625997236464"><ele>257.4</ele><time>2026-05-01T08:37:08.888Z</time></trkpt><trkpt lat="40.887512148011666" lon="8.829576442232963"><ele>257.6</ele><time>2026-05-01T08:37:09.888Z</time></trkpt><trkpt lat="40.88759744102293" lon="8.82951918270689"><ele>257.8</ele><time>2026-05-01T08:37:10.888Z</time></trkpt><trkpt lat="40.88768981102591" lon="8.829469705362712"><ele>258.0</ele><time>2026-05-01T08:37:11.888Z</time></trkpt><trkpt lat="40.88779865119045" lon="8.8293714429528"><ele>256.0</ele><time>2026-05-01T08:37:12.888Z</time></trkpt><trkpt lat="40.88790143890302" lon="8.829279257564744"><ele>254.0</ele><time>2026-05-01T08:37:13.888Z</time></trkpt><trkpt lat="40.88798282819061" lon="8.82920854893843"><ele>252.0</ele><time>2026-05-01T08:37:14.886Z</time></trkpt><trkpt lat="40.8880391289386" lon="8.829167537812012"><ele>250.0</ele><time>2026-05-01T08:37:15.886Z</time></trkpt><trkpt lat="40.88817312566348" lon="8.829185528024253"><ele>248.0</ele><time>2026-05-01T08:37:17.886Z</time></trkpt><trkpt lat="40.88826197014662" lon="8.829234847640645"><ele>248.0</ele><time>2026-05-01T08:37:18.886Z</time></trkpt><trkpt lat="40.88835888368521" lon="8.829299017277227"><ele>248.0</ele><time>2026-05-01T08:37:19.886Z</time></trkpt><trkpt lat="40.88846504876709" lon="8.829372395335445"><ele>248.0</ele><time>2026-05-01T08:37:20.886Z</time></trkpt><trkpt lat="40.88857176385405" lon="8.829444599749532"><ele>248.0</ele><time>2026-05-01T08:37:21.886Z</time></trkpt><trkpt lat="40.88867152013826" lon="8.82950742672465"><ele>246.60000000000002</ele><time>2026-05-01T08:37:22.886Z</time></trkpt><trkpt lat="40.88876179592471" lon="8.829559674575949"><ele>245.20000000000002</ele><time>2026-05-01T08:37:23.886Z</time></trkpt><trkpt lat="40.88884256597506" lon="8.829582590994926"><ele>243.8</ele><time>2026-05-01T08:37:24.886Z</time></trkpt><trkpt lat="40.888918254327855" lon="8.829557300970592"><ele>242.4</ele><time>2026-05-01T08:37:25.886Z</time></trkpt><trkpt lat="40.88897905733772" lon="8.829496884401234"><ele>241.0</ele><time>2026-05-01T08:37:26.886Z</time></trkpt><trkpt lat="40.88903698333715" lon="8.829325841058324"><ele>239.8</ele><time>2026-05-01T08:37:28.885Z</time></trkpt><trkpt lat="40.889051445194376" lon="8.82919055970527"><ele>238.60000000000002</ele><time>2026-05-01T08:37:29.885Z</time></trkpt><trkpt lat="40.889052939788" lon="8.829049612729353"><ele>237.4</ele><time>2026-05-01T08:37:30.885Z</time></trkpt><trkpt lat="40.889054936821026" lon="8.828907999085674"><ele>236.2</ele><time>2026-05-01T08:37:31.885Z</time></trkpt><trkpt lat="40.88906600165118" lon="8.828777905013927"><ele>235.0</ele><time>2026-05-01T08:37:32.885Z</time></trkpt><trkpt lat="40.88909341155689" lon="8.828667417425034"><ele>234.99999999999997</ele><time>2026-05-01T08:37:33.885Z</time></trkpt><trkpt lat="40.889136653203025" lon="8.82857020699811"><ele>235.0</ele><time>2026-05-01T08:37:34.885Z</time></trkpt><trkpt lat="40.88919947669964" lon="8.828503119108266"><ele>235.0</ele><time>2026-05-01T08:37:35.885Z</time></trkpt><trkpt lat="40.889264967124895" lon="8.828487178666663"><ele>235.0</ele><time>2026-05-01T08:37:36.885Z</time></trkpt><trkpt lat="40.889331627346095" lon="8.828510027869235"><ele>234.99999999999997</ele><time>2026-05-01T08:37:37.885Z</time></trkpt><trkpt lat="40.88938178714426" lon="8.828589918501367"><ele>235.0</ele><time>2026-05-01T08:37:38.885Z</time></trkpt><trkpt lat="40.88943029627203" lon="8.82866728257107"><ele>229.66666666666666</ele><time>2026-05-01T08:37:39.885Z</time></trkpt><trkpt lat="40.889486255802595" lon="8.828752126727643"><ele>224.33333333333331</ele><time>2026-05-01T08:37:40.885Z</time></trkpt><trkpt lat="40.88952403335008" lon="8.828851783381172"><ele>219.0</ele><time>2026-05-01T08:37:41.885Z</time></trkpt><trkpt lat="40.88952055311021" lon="8.828957330002888"><ele>213.66666666666669</ele><time>2026-05-01T08:37:42.885Z</time></trkpt><trkpt lat="40.88951807450737" lon="8.829054566484357"><ele>208.33333333333334</ele><time>2026-05-01T08:37:43.885Z</time></trkpt><trkpt lat="40.88950840623569" lon="8.829152456746327"><ele>203.0</ele><time>2026-05-01T08:37:44.885Z</time></trkpt><trkpt lat="40.88950019004844" lon="8.829257136474904"><ele>205.00000000000003</ele><time>2026-05-01T08:37:45.885Z</time></trkpt><trkpt lat="40.889507931706746" lon="8.829358283607757"><ele>207.0</ele><time>2026-05-01T08:37:46.885Z</time></trkpt><trkpt lat="40.88950000182072" lon="8.829445601143137"><ele>209.0</ele><time>2026-05-01T08:37:47.885Z</time></trkpt><trkpt lat="40.8895001968032" lon="8.82955106766516"><ele>211.0</ele><time>2026-05-01T08:37:49.885Z</time></trkpt><trkpt lat="40.88955649591709" lon="8.829682322144372"><ele>213.00000000000003</ele><time>2026-05-01T08:38:25.885Z</time></trkpt><trkpt lat="40.88960264878079" lon="8.829756999888504"><ele>215.0</ele><time>2026-05-01T08:38:26.885Z</time></trkpt><trkpt lat="40.889684341618164" lon="8.82982954924667"><ele>215.0</ele><time>2026-05-01T08:38:27.885Z</time></trkpt><trkpt lat="40.889761250070706" lon="8.829909601375011"><ele>215.0</ele><time>2026-05-01T08:38:28.885Z</time></trkpt><trkpt lat="40.889857312861565" lon="8.829979887993948"><ele>215.0</ele><time>2026-05-01T08:38:29.885Z</time></trkpt><trkpt lat="40.88995760646702" lon="8.8300434316859"><ele>215.0</ele><time>2026-05-01T08:38:30.885Z</time></trkpt><trkpt lat="40.890058846898455" lon="8.830106247855287"><ele>215.0</ele><time>2026-05-01T08:38:31.885Z</time></trkpt><trkpt lat="40.89015379113079" lon="8.830179590728346"><ele>211.83333333333334</ele><time>2026-05-01T08:38:32.885Z</time></trkpt><trkpt lat="40.890232855914356" lon="8.830279584046897"><ele>208.66666666666669</ele><time>2026-05-01T08:38:33.885Z</time></trkpt><trkpt lat="40.890292601574" lon="8.83036850015143"><ele>205.5</ele><time>2026-05-01T08:38:34.885Z</time></trkpt><trkpt lat="40.89032048005987" lon="8.830456180570279"><ele>202.33333333333331</ele><time>2026-05-01T08:38:35.885Z</time></trkpt><trkpt lat="40.89031932783139" lon="8.83055265856476"><ele>199.16666666666666</ele><time>2026-05-01T08:38:36.885Z</time></trkpt><trkpt lat="40.890313799262735" lon="8.830665326516778"><ele>196.0</ele><time>2026-05-01T08:38:37.884Z</time></trkpt><trkpt lat="40.89031943835794" lon="8.830799203870633"><ele>195.99999999999997</ele><time>2026-05-01T08:38:38.884Z</time></trkpt><trkpt lat="40.89033115552255" lon="8.83091459409328"><ele>196.0</ele><time>2026-05-01T08:38:39.884Z</time></trkpt><trkpt lat="40.89036336601572" lon="8.8310076368095"><ele>196.0</ele><time>2026-05-01T08:38:40.884Z</time></trkpt><trkpt lat="40.89041047165458" lon="8.831077037920695"><ele>196.0</ele><time>2026-05-01T08:38:41.884Z</time></trkpt><trkpt lat="40.89051595171913" lon="8.831067389834553"><ele>195.99999999999997</ele><time>2026-05-01T08:38:43.884Z</time></trkpt><trkpt lat="40.890575079033496" lon="8.830972992344277"><ele>196.0</ele><time>2026-05-01T08:38:45.884Z</time></trkpt><trkpt lat="40.890593988068055" lon="8.830882036255593"><ele>195.99999999999997</ele><time>2026-05-01T08:38:46.884Z</time></trkpt><trkpt lat="40.89061706773891" lon="8.830777294943106"><ele>196.0</ele><time>2026-05-01T08:38:47.884Z</time></trkpt><trkpt lat="40.890653336555786" lon="8.830672117372606"><ele>196.0</ele><time>2026-05-01T08:38:48.884Z</time></trkpt><trkpt lat="40.89070417172735" lon="8.830582942439733"><ele>196.0</ele><time>2026-05-01T08:38:49.884Z</time></trkpt><trkpt lat="40.89077986271348" lon="8.83051469778185"><ele>195.99999999999997</ele><time>2026-05-01T08:38:50.884Z</time></trkpt><trkpt lat="40.89086723829248" lon="8.830470846885968"><ele>196.0</ele><time>2026-05-01T08:38:51.884Z</time></trkpt><trkpt lat="40.89097289617321" lon="8.830437438981308"><ele>191.8</ele><time>2026-05-01T08:38:52.884Z</time></trkpt><trkpt lat="40.89108467981597" lon="8.830444470396179"><ele>187.60000000000002</ele><time>2026-05-01T08:38:53.884Z</time></trkpt><trkpt lat="40.89118650528695" lon="8.830447569405427"><ele>183.4</ele><time>2026-05-01T08:38:54.884Z</time></trkpt><trkpt lat="40.89130266551152" lon="8.830444362787272"><ele>179.2</ele><time>2026-05-01T08:38:55.884Z</time></trkpt><trkpt lat="40.89141562099865" lon="8.8304317821871"><ele>175.0</ele><time>2026-05-01T08:38:56.884Z</time></trkpt><trkpt lat="40.89151956322103" lon="8.83040753545516"><ele>175.0</ele><time>2026-05-01T08:38:57.884Z</time></trkpt><trkpt lat="40.89161485101497" lon="8.830383479507008"><ele>175.0</ele><time>2026-05-01T08:38:58.884Z</time></trkpt><trkpt lat="40.89168588474689" lon="8.830341499015296"><ele>175.0</ele><time>2026-05-01T08:38:59.884Z</time></trkpt><trkpt lat="40.8917482086937" lon="8.830280968032747"><ele>175.0</ele><time>2026-05-01T08:39:00.884Z</time></trkpt><trkpt lat="40.89176987899141" lon="8.830195274956528"><ele>175.0</ele><time>2026-05-01T08:39:01.884Z</time></trkpt><trkpt lat="40.8917851704838" lon="8.83008104772397"><ele>175.0</ele><time>2026-05-01T08:39:02.884Z</time></trkpt><trkpt lat="40.89180449496095" lon="8.829962194656913"><ele>173.16666666666669</ele><time>2026-05-01T08:39:03.884Z</time></trkpt><trkpt lat="40.891833483381184" lon="8.829870541527532"><ele>171.33333333333334</ele><time>2026-05-01T08:39:04.884Z</time></trkpt><trkpt lat="40.891883795662956" lon="8.829810947836537"><ele>169.5</ele><time>2026-05-01T08:39:05.884Z</time></trkpt><trkpt lat="40.89195195826585" lon="8.829781828026416"><ele>167.66666666666666</ele><time>2026-05-01T08:39:06.884Z</time></trkpt><trkpt lat="40.892027276274945" lon="8.829795021380152"><ele>165.83333333333331</ele><time>2026-05-01T08:39:07.884Z</time></trkpt><trkpt lat="40.892093538491935" lon="8.829841842668863"><ele>164.0</ele><time>2026-05-01T08:39:08.884Z</time></trkpt><trkpt lat="40.89215528128568" lon="8.82992301863747"><ele>164.0</ele><time>2026-05-01T08:39:09.884Z</time></trkpt><trkpt lat="40.892194714096135" lon="8.830020323423847"><ele>164.0</ele><time>2026-05-01T08:39:10.884Z</time></trkpt><trkpt lat="40.8922254146531" lon="8.83013390251302"><ele>164.0</ele><time>2026-05-01T08:39:11.884Z</time></trkpt><trkpt lat="40.8922512099574" lon="8.83022427234726"><ele>164.0</ele><time>2026-05-01T08:39:12.884Z</time></trkpt><trkpt lat="40.89234646866354" lon="8.83031943127839"><ele>164.0</ele><time>2026-05-01T08:39:14.884Z</time></trkpt><trkpt lat="40.89246170973001" lon="8.83026210612484"><ele>164.0</ele><time>2026-05-01T08:39:16.884Z</time></trkpt><trkpt lat="40.892517368631935" lon="8.830192633737502"><ele>164.0</ele><time>2026-05-01T08:39:17.884Z</time></trkpt><trkpt lat="40.89254156912833" lon="8.830055143384985"><ele>164.0</ele><time>2026-05-01T08:39:18.884Z</time></trkpt><trkpt lat="40.89257504819713" lon="8.82995364375609"><ele>164.0</ele><time>2026-05-01T08:39:19.884Z</time></trkpt><trkpt lat="40.89266695356713" lon="8.829876703050104"><ele>164.0</ele><time>2026-05-01T08:39:21.882Z</time></trkpt><trkpt lat="40.892731491570586" lon="8.829893222878923"><ele>164.0</ele><time>2026-05-01T08:39:22.882Z</time></trkpt><trkpt lat="40.892782589844046" lon="8.829954966070055"><ele>161.6</ele><time>2026-05-01T08:39:23.882Z</time></trkpt><trkpt lat="40.89281799678302" lon="8.830056823308903"><ele>159.2</ele><time>2026-05-01T08:39:24.882Z</time></trkpt><trkpt lat="40.89289132517255" lon="8.83013870445112"><ele>156.79999999999998</ele><time>2026-05-01T08:39:25.882Z</time></trkpt><trkpt lat="40.89295665805727" lon="8.830240273821973"><ele>154.39999999999998</ele><time>2026-05-01T08:39:26.882Z</time></trkpt><trkpt lat="40.89303144595423" lon="8.830332301829214"><ele>152.0</ele><time>2026-05-01T08:39:27.883Z</time></trkpt><trkpt lat="40.89310655482442" lon="8.830424454038502"><ele>151.66666666666666</ele><time>2026-05-01T08:39:28.883Z</time></trkpt><trkpt lat="40.89317747584329" lon="8.830517974956352"><ele>151.33333333333331</ele><time>2026-05-01T08:39:29.882Z</time></trkpt><trkpt lat="40.89325125620926" lon="8.830596148366014"><ele>151.0</ele><time>2026-05-01T08:39:30.883Z</time></trkpt><trkpt lat="40.89330685398464" lon="8.830653733898252"><ele>150.66666666666666</ele><time>2026-05-01T08:39:31.883Z</time></trkpt><trkpt lat="40.8933704246737" lon="8.830671595177439"><ele>150.33333333333334</ele><time>2026-05-01T08:39:32.883Z</time></trkpt><trkpt lat="40.89343623650802" lon="8.830655036133958"><ele>150.0</ele><time>2026-05-01T08:39:33.882Z</time></trkpt><trkpt lat="40.893509191903966" lon="8.83061419003088"><ele>146.0</ele><time>2026-05-01T08:39:34.882Z</time></trkpt><trkpt lat="40.893602425899935" lon="8.83055753809949"><ele>142.0</ele><time>2026-05-01T08:39:35.882Z</time></trkpt><trkpt lat="40.893707673040176" lon="8.830503044839572"><ele>138.0</ele><time>2026-05-01T08:39:36.882Z</time></trkpt><trkpt lat="40.893804084725055" lon="8.830447706092258"><ele>134.0</ele><time>2026-05-01T08:39:37.882Z</time></trkpt><trkpt lat="40.89388908141054" lon="8.830370983623766"><ele>130.0</ele><time>2026-05-01T08:39:38.882Z</time></trkpt><trkpt lat="40.89395469284376" lon="8.83029461162126"><ele>130.0</ele><time>2026-05-01T08:39:39.882Z</time></trkpt><trkpt lat="40.893993443225554" lon="8.830193670080712"><ele>130.0</ele><time>2026-05-01T08:39:40.882Z</time></trkpt><trkpt lat="40.89402960442311" lon="8.830094433376846"><ele>130.0</ele><time>2026-05-01T08:39:41.882Z</time></trkpt><trkpt lat="40.89406418214308" lon="8.829958533013317"><ele>130.0</ele><time>2026-05-01T08:39:43.882Z</time></trkpt><trkpt lat="40.894094933138376" lon="8.829870073744283"><ele>130.0</ele><time>2026-05-01T08:42:46.878Z</time></trkpt><trkpt lat="40.89411902172307" lon="8.82978744351273"><ele>130.0</ele><time>2026-05-01T08:42:47.878Z</time></trkpt><trkpt lat="40.89414630380745" lon="8.82969040105161"><ele>130.6</ele><time>2026-05-01T08:42:48.878Z</time></trkpt><trkpt lat="40.89416140213491" lon="8.8295934061596"><ele>131.2</ele><time>2026-05-01T08:42:49.878Z</time></trkpt><trkpt lat="40.89416030012074" lon="8.829503891072132"><ele>131.8</ele><time>2026-05-01T08:42:50.878Z</time></trkpt><trkpt lat="40.894090207066874" lon="8.829360148444998"><ele>132.4</ele><time>2026-05-01T08:42:52.878Z</time></trkpt><trkpt lat="40.894021246640776" lon="8.829293898042064"><ele>133.0</ele><time>2026-05-01T08:42:53.878Z</time></trkpt><trkpt lat="40.89393398103466" lon="8.829244638126424"><ele>133.0</ele><time>2026-05-01T08:42:54.878Z</time></trkpt><trkpt lat="40.89384078530362" lon="8.829195558687742"><ele>133.0</ele><time>2026-05-01T08:42:55.878Z</time></trkpt><trkpt lat="40.893757648414734" lon="8.829144006854547"><ele>133.0</ele><time>2026-05-01T08:42:56.878Z</time></trkpt><trkpt lat="40.89369008482127" lon="8.829090758189617"><ele>133.0</ele><time>2026-05-01T08:42:57.878Z</time></trkpt><trkpt lat="40.89364063848121" lon="8.829017318489484"><ele>133.0</ele><time>2026-05-01T08:42:58.878Z</time></trkpt><trkpt lat="40.893606121595234" lon="8.828933020038143"><ele>133.0</ele><time>2026-05-01T08:42:59.878Z</time></trkpt><trkpt lat="40.8936046594237" lon="8.828841343607083"><ele>133.0</ele><time>2026-05-01T08:43:00.878Z</time></trkpt><trkpt lat="40.893628237906" lon="8.828759801249461"><ele>133.0</ele><time>2026-05-01T08:43:01.878Z</time></trkpt><trkpt lat="40.89366889926641" lon="8.828685952773858"><ele>133.0</ele><time>2026-05-01T08:43:02.878Z</time></trkpt><trkpt lat="40.89373546980538" lon="8.828626502134963"><ele>133.0</ele><time>2026-05-01T08:43:03.878Z</time></trkpt><trkpt lat="40.89382233184144" lon="8.828552837129187"><ele>133.0</ele><time>2026-05-01T08:43:04.878Z</time></trkpt><trkpt lat="40.893916264321795" lon="8.828481216232719"><ele>133.0</ele><time>2026-05-01T08:43:05.878Z</time></trkpt><trkpt lat="40.89401301535433" lon="8.828416683072918"><ele>131.20000000000002</ele><time>2026-05-01T08:43:06.878Z</time></trkpt><trkpt lat="40.89410937566451" lon="8.828369436776779"><ele>129.4</ele><time>2026-05-01T08:43:07.878Z</time></trkpt><trkpt lat="40.89420904803078" lon="8.82833625898851"><ele>127.60000000000001</ele><time>2026-05-01T08:43:08.878Z</time></trkpt><trkpt lat="40.89431312836984" lon="8.82831519001703"><ele>125.80000000000001</ele><time>2026-05-01T08:43:09.878Z</time></trkpt><trkpt lat="40.89442691332036" lon="8.828299844616295"><ele>124.0</ele><time>2026-05-01T08:43:10.878Z</time></trkpt><trkpt lat="40.89451883824911" lon="8.828294545322631"><ele>123.0</ele><time>2026-05-01T08:43:11.878Z</time></trkpt><trkpt lat="40.89459842630944" lon="8.828294507357603"><ele>122.0</ele><time>2026-05-01T08:43:13.878Z</time></trkpt><trkpt lat="40.894550066424415" lon="8.828209426095786"><ele>121.0</ele><time>2026-05-01T08:43:20.878Z</time></trkpt><trkpt lat="40.894479361181936" lon="8.828152269058497"><ele>120.0</ele><time>2026-05-01T08:43:22.878Z</time></trkpt><trkpt lat="40.89440998372982" lon="8.828052149123922"><ele>119.0</ele><time>2026-05-01T08:43:24.878Z</time></trkpt><trkpt lat="40.89433582112108" lon="8.827944392999608"><ele>120.0</ele><time>2026-05-01T08:43:26.878Z</time></trkpt><trkpt lat="40.89424254111661" lon="8.827845114759016"><ele>121.0</ele><time>2026-05-01T08:43:28.878Z</time></trkpt><trkpt lat="40.89418677624306" lon="8.827798826568573"><ele>122.0</ele><time>2026-05-01T08:43:29.878Z</time></trkpt><trkpt lat="40.89410436808917" lon="8.827708335906756"><ele>123.0</ele><time>2026-05-01T08:43:31.878Z</time></trkpt><trkpt lat="40.894070116318524" lon="8.827547738067173"><ele>124.0</ele><time>2026-05-01T08:43:33.877Z</time></trkpt><trkpt lat="40.89411544168689" lon="8.827420887070069"><ele>122.00000000000001</ele><time>2026-05-01T08:43:35.877Z</time></trkpt><trkpt lat="40.894214128906476" lon="8.82739098013533"><ele>120.0</ele><time>2026-05-01T08:43:37.877Z</time></trkpt><trkpt lat="40.894279577891034" lon="8.827377199841335"><ele>118.0</ele><time>2026-05-01T08:43:38.877Z</time></trkpt><trkpt lat="40.894354723621454" lon="8.827347110458298"><ele>116.0</ele><time>2026-05-01T08:43:39.877Z</time></trkpt><trkpt lat="40.89443129432044" lon="8.827302634033186"><ele>114.00000000000001</ele><time>2026-05-01T08:43:40.877Z</time></trkpt><trkpt lat="40.894507071278554" lon="8.827255435841494"><ele>112.0</ele><time>2026-05-01T08:43:41.877Z</time></trkpt><trkpt lat="40.8945795849572" lon="8.827199075576761"><ele>112.00000000000001</ele><time>2026-05-01T08:43:42.877Z</time></trkpt><trkpt lat="40.89465314556858" lon="8.82713142717138"><ele>112.0</ele><time>2026-05-01T08:43:43.877Z</time></trkpt><trkpt lat="40.8947027557571" lon="8.827062516808281"><ele>112.0</ele><time>2026-05-01T08:43:44.877Z</time></trkpt><trkpt lat="40.894740058124384" lon="8.826984432707517"><ele>112.0</ele><time>2026-05-01T08:43:45.876Z</time></trkpt><trkpt lat="40.89477716055138" lon="8.826885186205184"><ele>112.00000000000001</ele><time>2026-05-01T08:43:46.876Z</time></trkpt><trkpt lat="40.894811962538" lon="8.826795642599771"><ele>112.0</ele><time>2026-05-01T08:43:47.876Z</time></trkpt><trkpt lat="40.8948599880824" lon="8.826705536992334"><ele>112.66666666666667</ele><time>2026-05-01T08:43:48.876Z</time></trkpt><trkpt lat="40.89491589298099" lon="8.826631663742718"><ele>113.33333333333334</ele><time>2026-05-01T08:43:49.876Z</time></trkpt><trkpt lat="40.89498209108509" lon="8.82654903476418"><ele>114.0</ele><time>2026-05-01T08:43:50.876Z</time></trkpt><trkpt lat="40.895047943265574" lon="8.826457179500496"><ele>114.66666666666666</ele><time>2026-05-01T08:43:51.876Z</time></trkpt><trkpt lat="40.895103366619935" lon="8.826360067332834"><ele>115.33333333333333</ele><time>2026-05-01T08:43:52.876Z</time></trkpt><trkpt lat="40.89513539503103" lon="8.826270509600407"><ele>116.0</ele><time>2026-05-01T08:43:53.876Z</time></trkpt><trkpt lat="40.895146834867646" lon="8.826182083771682"><ele>115.99999999999999</ele><time>2026-05-01T08:43:54.876Z</time></trkpt><trkpt lat="40.895149135813966" lon="8.826075673964416"><ele>116.0</ele><time>2026-05-01T08:43:55.876Z</time></trkpt><trkpt lat="40.8951483835245" lon="8.82595526616468"><ele>116.0</ele><time>2026-05-01T08:43:56.876Z</time></trkpt><trkpt lat="40.8951544799261" lon="8.825835863884118"><ele>116.0</ele><time>2026-05-01T08:43:57.876Z</time></trkpt><trkpt lat="40.895158241294816" lon="8.825731908234607"><ele>115.99999999999999</ele><time>2026-05-01T08:43:58.876Z</time></trkpt><trkpt lat="40.89516728932558" lon="8.825634863897475"><ele>116.0</ele><time>2026-05-01T08:43:59.876Z</time></trkpt><trkpt lat="40.89518018036144" lon="8.825542070881829"><ele>115.66666666666666</ele><time>2026-05-01T08:44:00.876Z</time></trkpt><trkpt lat="40.8952003667813" lon="8.825456964012053"><ele>115.33333333333333</ele><time>2026-05-01T08:44:01.876Z</time></trkpt><trkpt lat="40.89522193234106" lon="8.825372340682286"><ele>115.0</ele><time>2026-05-01T08:44:02.876Z</time></trkpt><trkpt lat="40.895245690169524" lon="8.825281879365933"><ele>114.66666666666666</ele><time>2026-05-01T08:44:03.876Z</time></trkpt><trkpt lat="40.89527242188872" lon="8.825173718482437"><ele>114.33333333333333</ele><time>2026-05-01T08:44:04.876Z</time></trkpt><trkpt lat="40.89530359589818" lon="8.825062029534852"><ele>114.0</ele><time>2026-05-01T08:44:05.876Z</time></trkpt><trkpt lat="40.89533419862091" lon="8.824966760368065"><ele>113.16666666666667</ele><time>2026-05-01T08:44:06.876Z</time></trkpt><trkpt lat="40.89537551460128" lon="8.82487403086924"><ele>112.33333333333334</ele><time>2026-05-01T08:44:07.876Z</time></trkpt><trkpt lat="40.89542438634142" lon="8.824777028122757"><ele>111.5</ele><time>2026-05-01T08:44:08.876Z</time></trkpt><trkpt lat="40.895473074854266" lon="8.824670111588205"><ele>110.66666666666667</ele><time>2026-05-01T08:44:09.876Z</time></trkpt><trkpt lat="40.89552499826574" lon="8.824565058028929"><ele>109.83333333333334</ele><time>2026-05-01T08:44:10.876Z</time></trkpt><trkpt lat="40.89557658625382" lon="8.824467167186938"><ele>109.0</ele><time>2026-05-01T08:44:11.876Z</time></trkpt><trkpt lat="40.89562813588812" lon="8.824354373284164"><ele>107.83333333333334</ele><time>2026-05-01T08:44:12.876Z</time></trkpt><trkpt lat="40.89567947893416" lon="8.824245090604212"><ele>106.66666666666667</ele><time>2026-05-01T08:44:13.876Z</time></trkpt><trkpt lat="40.89573289562516" lon="8.824141017485434"><ele>105.5</ele><time>2026-05-01T08:44:14.876Z</time></trkpt><trkpt lat="40.895781008851834" lon="8.824052024413836"><ele>104.33333333333334</ele><time>2026-05-01T08:44:15.876Z</time></trkpt><trkpt lat="40.89583736825075" lon="8.823958329914072"><ele>103.16666666666667</ele><time>2026-05-01T08:44:16.876Z</time></trkpt><trkpt lat="40.89587962456233" lon="8.823874561688639"><ele>102.0</ele><time>2026-05-01T08:44:17.876Z</time></trkpt><trkpt lat="40.89591455813145" lon="8.823778959530484"><ele>102.66666666666667</ele><time>2026-05-01T08:44:18.876Z</time></trkpt><trkpt lat="40.89595169846071" lon="8.823666365969501"><ele>103.33333333333334</ele><time>2026-05-01T08:44:19.876Z</time></trkpt><trkpt lat="40.8959896762009" lon="8.823555730631394"><ele>104.0</ele><time>2026-05-01T08:44:20.876Z</time></trkpt><trkpt lat="40.89601684599588" lon="8.823454072227516"><ele>104.66666666666667</ele><time>2026-05-01T08:44:21.876Z</time></trkpt><trkpt lat="40.896028995160336" lon="8.82333865698525"><ele>105.33333333333334</ele><time>2026-05-01T08:44:22.876Z</time></trkpt><trkpt lat="40.8960326433952" lon="8.823217445075333"><ele>106.0</ele><time>2026-05-01T08:44:23.876Z</time></trkpt><trkpt lat="40.89603505103889" lon="8.823117751575724"><ele>106.00000000000001</ele><time>2026-05-01T08:44:24.876Z</time></trkpt><trkpt lat="40.896040861678024" lon="8.822997698029633"><ele>106.0</ele><time>2026-05-01T08:44:25.876Z</time></trkpt><trkpt lat="40.89604668909519" lon="8.822885363533938"><ele>106.0</ele><time>2026-05-01T08:44:26.876Z</time></trkpt><trkpt lat="40.89605947419288" lon="8.822762497714288"><ele>106.0</ele><time>2026-05-01T08:44:27.876Z</time></trkpt><trkpt lat="40.896083664186925" lon="8.82265664089888"><ele>106.00000000000001</ele><time>2026-05-01T08:44:28.876Z</time></trkpt><trkpt lat="40.89611506753123" lon="8.82255773904912"><ele>106.0</ele><time>2026-05-01T08:44:29.876Z</time></trkpt><trkpt lat="40.896160200312906" lon="8.822481932328756"><ele>104.16666666666667</ele><time>2026-05-01T08:44:30.876Z</time></trkpt><trkpt lat="40.89619413116291" lon="8.822380528202691"><ele>102.33333333333334</ele><time>2026-05-01T08:44:31.876Z</time></trkpt><trkpt lat="40.89622056703443" lon="8.822281575708796"><ele>100.5</ele><time>2026-05-01T08:44:32.876Z</time></trkpt><trkpt lat="40.89632106074791" lon="8.822188642670579"><ele>98.66666666666667</ele><time>2026-05-01T08:44:34.876Z</time></trkpt><trkpt lat="40.89638927571662" lon="8.82214473370183"><ele>96.83333333333334</ele><time>2026-05-01T08:44:35.876Z</time></trkpt><trkpt lat="40.896470528114676" lon="8.822125926903418"><ele>95.0</ele><time>2026-05-01T08:44:36.876Z</time></trkpt><trkpt lat="40.8965610865671" lon="8.822097627245203"><ele>95.0</ele><time>2026-05-01T08:44:37.876Z</time></trkpt><trkpt lat="40.89665296407742" lon="8.822062245085283"><ele>95.0</ele><time>2026-05-01T08:44:38.876Z</time></trkpt><trkpt lat="40.89674397562193" lon="8.822027922867777"><ele>95.0</ele><time>2026-05-01T08:44:39.876Z</time></trkpt><trkpt lat="40.89683853674566" lon="8.821983869019794"><ele>95.0</ele><time>2026-05-01T08:44:40.876Z</time></trkpt><trkpt lat="40.89692681706045" lon="8.821963570831791"><ele>95.0</ele><time>2026-05-01T08:44:41.876Z</time></trkpt><trkpt lat="40.89702157798926" lon="8.821921426610267"><ele>94.6</ele><time>2026-05-01T08:44:42.876Z</time></trkpt><trkpt lat="40.89711964996252" lon="8.821873382546835"><ele>94.2</ele><time>2026-05-01T08:44:43.876Z</time></trkpt><trkpt lat="40.897207479707454" lon="8.821826007246123"><ele>93.80000000000001</ele><time>2026-05-01T08:44:44.876Z</time></trkpt><trkpt lat="40.897292480850005" lon="8.821771302788484"><ele>93.4</ele><time>2026-05-01T08:44:45.876Z</time></trkpt><trkpt lat="40.8973762870358" lon="8.82173336950632"><ele>93.0</ele><time>2026-05-01T08:44:46.876Z</time></trkpt><trkpt lat="40.89745716493989" lon="8.821673662880867"><ele>92.4</ele><time>2026-05-01T08:44:47.876Z</time></trkpt><trkpt lat="40.89752669090596" lon="8.821605011368531"><ele>91.80000000000001</ele><time>2026-05-01T08:44:48.876Z</time></trkpt><trkpt lat="40.89759571921979" lon="8.821507203932105"><ele>91.2</ele><time>2026-05-01T08:44:49.876Z</time></trkpt><trkpt lat="40.89767418129572" lon="8.821421269048077"><ele>90.6</ele><time>2026-05-01T08:44:50.876Z</time></trkpt><trkpt lat="40.8977457124412" lon="8.821340513558749"><ele>90.0</ele><time>2026-05-01T08:44:51.876Z</time></trkpt><trkpt lat="40.89781546747287" lon="8.821257237680824"><ele>90.0</ele><time>2026-05-01T08:44:52.876Z</time></trkpt><trkpt lat="40.89788467129392" lon="8.821173317317625"><ele>90.0</ele><time>2026-05-01T08:44:53.876Z</time></trkpt><trkpt lat="40.89795754883632" lon="8.82109107526933"><ele>90.0</ele><time>2026-05-01T08:44:54.875Z</time></trkpt><trkpt lat="40.89800854553249" lon="8.821016425888464"><ele>90.0</ele><time>2026-05-01T08:44:55.875Z</time></trkpt><trkpt lat="40.898058892609754" lon="8.820927228908978"><ele>90.0</ele><time>2026-05-01T08:44:56.875Z</time></trkpt><trkpt lat="40.89809927961959" lon="8.82083768289533"><ele>90.0</ele><time>2026-05-01T08:44:57.875Z</time></trkpt><trkpt lat="40.89813346577549" lon="8.820754494700864"><ele>88.4</ele><time>2026-05-01T08:44:58.875Z</time></trkpt><trkpt lat="40.89816475407714" lon="8.820648911054697"><ele>86.8</ele><time>2026-05-01T08:44:59.875Z</time></trkpt><trkpt lat="40.898195491754116" lon="8.820526615775528"><ele>85.19999999999999</ele><time>2026-05-01T08:45:00.875Z</time></trkpt><trkpt lat="40.89822758807242" lon="8.82040703718708"><ele>83.6</ele><time>2026-05-01T08:45:01.875Z</time></trkpt><trkpt lat="40.898252143421516" lon="8.82027892623073"><ele>82.0</ele><time>2026-05-01T08:45:02.875Z</time></trkpt><trkpt lat="40.898269052830805" lon="8.82015215651631"><ele>81.8</ele><time>2026-05-01T08:45:03.875Z</time></trkpt><trkpt lat="40.898286522668016" lon="8.820030113418527"><ele>81.6</ele><time>2026-05-01T08:45:04.875Z</time></trkpt><trkpt lat="40.89831186061395" lon="8.819915912842339"><ele>81.39999999999999</ele><time>2026-05-01T08:45:05.875Z</time></trkpt><trkpt lat="40.89832843446517" lon="8.819820673642287"><ele>81.19999999999999</ele><time>2026-05-01T08:45:06.875Z</time></trkpt><trkpt lat="40.898324796114544" lon="8.819714577440608"><ele>81.0</ele><time>2026-05-01T08:45:07.875Z</time></trkpt><trkpt lat="40.89833506788766" lon="8.81956634711555"><ele>81.0</ele><time>2026-05-01T08:45:08.875Z</time></trkpt><trkpt lat="40.89835504840134" lon="8.81943691756627"><ele>81.0</ele><time>2026-05-01T08:45:09.875Z</time></trkpt><trkpt lat="40.89836568958566" lon="8.819300614992878"><ele>81.0</ele><time>2026-05-01T08:45:10.875Z</time></trkpt><trkpt lat="40.898375472548445" lon="8.819178707495922"><ele>81.0</ele><time>2026-05-01T08:45:11.875Z</time></trkpt><trkpt lat="40.89839112417839" lon="8.819091298071084"><ele>81.0</ele><time>2026-05-01T08:45:12.875Z</time></trkpt><trkpt lat="40.89836728262465" lon="8.818964717325231"><ele>79.6</ele><time>2026-05-01T08:45:14.875Z</time></trkpt><trkpt lat="40.89832056349527" lon="8.818876866071834"><ele>78.19999999999999</ele><time>2026-05-01T08:45:15.875Z</time></trkpt><trkpt lat="40.89828124377131" lon="8.818737116160976"><ele>76.80000000000001</ele><time>2026-05-01T08:45:16.875Z</time></trkpt><trkpt lat="40.8982426444303" lon="8.818547019491605"><ele>75.4</ele><time>2026-05-01T08:45:17.875Z</time></trkpt><trkpt lat="40.89823115848431" lon="8.818413611608975"><ele>74.0</ele><time>2026-05-01T08:45:18.875Z</time></trkpt><trkpt lat="40.89824598290021" lon="8.818304974286614"><ele>73.16666666666667</ele><time>2026-05-01T08:45:19.875Z</time></trkpt><trkpt lat="40.89827246011751" lon="8.818202947245473"><ele>72.33333333333334</ele><time>2026-05-01T08:45:20.875Z</time></trkpt><trkpt lat="40.89831936502055" lon="8.818128198364267"><ele>71.5</ele><time>2026-05-01T08:45:21.875Z</time></trkpt><trkpt lat="40.89837549289287" lon="8.818054691151927"><ele>70.66666666666667</ele><time>2026-05-01T08:45:22.875Z</time></trkpt><trkpt lat="40.89844704795455" lon="8.818000621912132"><ele>69.83333333333333</ele><time>2026-05-01T08:45:23.875Z</time></trkpt><trkpt lat="40.89851494942505" lon="8.817925576553566"><ele>69.0</ele><time>2026-05-01T08:45:24.875Z</time></trkpt><trkpt lat="40.898574643029555" lon="8.817839089465826"><ele>69.33333333333333</ele><time>2026-05-01T08:45:25.875Z</time></trkpt><trkpt lat="40.89863341035782" lon="8.817752693772471"><ele>69.66666666666667</ele><time>2026-05-01T08:45:26.875Z</time></trkpt><trkpt lat="40.89868974195041" lon="8.817666033716021"><ele>70.0</ele><time>2026-05-01T08:45:27.875Z</time></trkpt><trkpt lat="40.89874762648169" lon="8.817576654463071"><ele>70.33333333333334</ele><time>2026-05-01T08:45:28.875Z</time></trkpt><trkpt lat="40.898794877525994" lon="8.817478346198765"><ele>70.66666666666667</ele><time>2026-05-01T08:45:29.875Z</time></trkpt><trkpt lat="40.8988374438532" lon="8.81737027145031"><ele>71.0</ele><time>2026-05-01T08:45:30.875Z</time></trkpt><trkpt lat="40.89887758866712" lon="8.817277238179953"><ele>71.0</ele><time>2026-05-01T08:45:31.875Z</time></trkpt><trkpt lat="40.898921924042966" lon="8.81720893344071"><ele>71.0</ele><time>2026-05-01T08:45:32.875Z</time></trkpt><trkpt lat="40.89897687539479" lon="8.817145463897731"><ele>71.0</ele><time>2026-05-01T08:45:33.875Z</time></trkpt><trkpt lat="40.899044024011594" lon="8.817092877127736"><ele>71.0</ele><time>2026-05-01T08:45:34.875Z</time></trkpt><trkpt lat="40.89911125649167" lon="8.817046588134842"><ele>71.0</ele><time>2026-05-01T08:45:35.875Z</time></trkpt><trkpt lat="40.89917799557548" lon="8.816979588685122"><ele>71.0</ele><time>2026-05-01T08:45:36.875Z</time></trkpt><trkpt lat="40.89922930334648" lon="8.816900800221017"><ele>72.83333333333334</ele><time>2026-05-01T08:45:37.875Z</time></trkpt><trkpt lat="40.899264654900904" lon="8.816805943782127"><ele>74.66666666666667</ele><time>2026-05-01T08:45:38.874Z</time></trkpt><trkpt lat="40.899289086598706" lon="8.816702744060636"><ele>76.5</ele><time>2026-05-01T08:45:39.875Z</time></trkpt><trkpt lat="40.89930963196334" lon="8.816586224093346"><ele>78.33333333333333</ele><time>2026-05-01T08:45:40.875Z</time></trkpt><trkpt lat="40.89933225049172" lon="8.816461649803756"><ele>80.16666666666666</ele><time>2026-05-01T08:45:41.875Z</time></trkpt><trkpt lat="40.89936123748096" lon="8.816335406438077"><ele>82.0</ele><time>2026-05-01T08:45:42.874Z</time></trkpt><trkpt lat="40.899401350130006" lon="8.816211906698463"><ele>82.0</ele><time>2026-05-01T08:45:43.874Z</time></trkpt><trkpt lat="40.899444137515914" lon="8.816093517188122"><ele>82.0</ele><time>2026-05-01T08:45:44.874Z</time></trkpt><trkpt lat="40.899492519058406" lon="8.815979766428375"><ele>82.0</ele><time>2026-05-01T08:45:45.874Z</time></trkpt><trkpt lat="40.89955137183224" lon="8.815869482373028"><ele>82.0</ele><time>2026-05-01T08:45:46.874Z</time></trkpt><trkpt lat="40.899613892231514" lon="8.815770225433216"><ele>82.0</ele><time>2026-05-01T08:45:47.874Z</time></trkpt><trkpt lat="40.89968517177156" lon="8.815678852554012"><ele>79.8</ele><time>2026-05-01T08:45:48.874Z</time></trkpt><trkpt lat="40.899762886716985" lon="8.815589295386877"><ele>77.6</ele><time>2026-05-01T08:45:49.874Z</time></trkpt><trkpt lat="40.899834060016545" lon="8.81550249666794"><ele>75.39999999999999</ele><time>2026-05-01T08:45:50.874Z</time></trkpt><trkpt lat="40.89991055817452" lon="8.81542665785778"><ele>73.19999999999999</ele><time>2026-05-01T08:45:51.874Z</time></trkpt><trkpt lat="40.89998290731122" lon="8.815341965082277"><ele>71.0</ele><time>2026-05-01T08:45:52.874Z</time></trkpt><trkpt lat="40.90005326751788" lon="8.815267722834507"><ele>70.0</ele><time>2026-05-01T08:45:53.874Z</time></trkpt><trkpt lat="40.90012332767761" lon="8.815206828908453"><ele>69.0</ele><time>2026-05-01T08:45:54.874Z</time></trkpt><trkpt lat="40.90020395154774" lon="8.815138925139308"><ele>68.0</ele><time>2026-05-01T08:45:55.874Z</time></trkpt><trkpt lat="40.90027721303021" lon="8.815056343596567"><ele>67.0</ele><time>2026-05-01T08:45:56.874Z</time></trkpt><trkpt lat="40.9003533877097" lon="8.814968764591601"><ele>66.0</ele><time>2026-05-01T08:45:57.874Z</time></trkpt><trkpt lat="40.90042761384264" lon="8.814888839737181"><ele>66.0</ele><time>2026-05-01T08:45:58.874Z</time></trkpt><trkpt lat="40.900496472393165" lon="8.814829456789994"><ele>66.0</ele><time>2026-05-01T08:45:59.874Z</time></trkpt><trkpt lat="40.900585630359714" lon="8.8147917577937"><ele>66.0</ele><time>2026-05-01T08:46:00.874Z</time></trkpt><trkpt lat="40.90067615233583" lon="8.814749420797371"><ele>66.0</ele><time>2026-05-01T08:46:01.874Z</time></trkpt><trkpt lat="40.90076659872781" lon="8.814701215282891"><ele>66.0</ele><time>2026-05-01T08:46:02.874Z</time></trkpt><trkpt lat="40.90085187231667" lon="8.814655263494018"><ele>66.83333333333333</ele><time>2026-05-01T08:46:03.874Z</time></trkpt><trkpt lat="40.90093606729605" lon="8.814613555271155"><ele>67.66666666666667</ele><time>2026-05-01T08:46:04.874Z</time></trkpt><trkpt lat="40.901015068234514" lon="8.814567185955136"><ele>68.5</ele><time>2026-05-01T08:46:05.874Z</time></trkpt><trkpt lat="40.901089685762095" lon="8.814531279039887"><ele>69.33333333333334</ele><time>2026-05-01T08:46:06.874Z</time></trkpt><trkpt lat="40.90117122460664" lon="8.814490778596856"><ele>70.16666666666667</ele><time>2026-05-01T08:46:07.874Z</time></trkpt><trkpt lat="40.90125064297827" lon="8.814443451809518"><ele>71.0</ele><time>2026-05-01T08:46:08.874Z</time></trkpt><trkpt lat="40.901331865972075" lon="8.81439107709208"><ele>71.0</ele><time>2026-05-01T08:46:09.874Z</time></trkpt><trkpt lat="40.901413016460104" lon="8.814339261825404"><ele>71.0</ele><time>2026-05-01T08:46:10.874Z</time></trkpt><trkpt lat="40.9015045866676" lon="8.814287549598555"><ele>71.0</ele><time>2026-05-01T08:46:11.874Z</time></trkpt><trkpt lat="40.901589756035825" lon="8.814243067651775"><ele>71.0</ele><time>2026-05-01T08:46:12.874Z</time></trkpt><trkpt lat="40.90167439181521" lon="8.814200045693664"><ele>71.0</ele><time>2026-05-01T08:46:13.874Z</time></trkpt><trkpt lat="40.90174733983762" lon="8.814156211006965"><ele>67.39999999999999</ele><time>2026-05-01T08:46:14.874Z</time></trkpt><trkpt lat="40.90181540934961" lon="8.814111833038478"><ele>63.8</ele><time>2026-05-01T08:46:15.874Z</time></trkpt><trkpt lat="40.901926543620355" lon="8.814061253065598"><ele>60.199999999999996</ele><time>2026-05-01T08:46:17.874Z</time></trkpt><trkpt lat="40.902036326427385" lon="8.814034799447766"><ele>56.599999999999994</ele><time>2026-05-01T08:46:19.874Z</time></trkpt><trkpt lat="40.90213495006084" lon="8.814015241711967"><ele>53.0</ele><time>2026-05-01T08:46:21.874Z</time></trkpt><trkpt lat="40.90224035388047" lon="8.814035594101126"><ele>53.00000000000001</ele><time>2026-05-01T08:46:23.874Z</time></trkpt><trkpt lat="40.9023043573306" lon="8.814050169110393"><ele>53.0</ele><time>2026-05-01T08:46:24.874Z</time></trkpt><trkpt lat="40.90237726758533" lon="8.814061032423886"><ele>53.0</ele><time>2026-05-01T08:46:25.874Z</time></trkpt><trkpt lat="40.90245062415541" lon="8.81406251889876"><ele>53.0</ele><time>2026-05-01T08:46:26.874Z</time></trkpt><trkpt lat="40.90253343524037" lon="8.814074450396967"><ele>53.00000000000001</ele><time>2026-05-01T08:46:27.874Z</time></trkpt><trkpt lat="40.90262283199015" lon="8.814073812900496"><ele>53.0</ele><time>2026-05-01T08:46:28.873Z</time></trkpt><trkpt lat="40.9027096730801" lon="8.814090258355513"><ele>52.00000000000001</ele><time>2026-05-01T08:46:29.873Z</time></trkpt><trkpt lat="40.90279859577444" lon="8.814127078409092"><ele>51.0</ele><time>2026-05-01T08:46:30.873Z</time></trkpt><trkpt lat="40.90287716545256" lon="8.814146227104173"><ele>50.0</ele><time>2026-05-01T08:46:31.873Z</time></trkpt><trkpt lat="40.90296373156298" lon="8.81416588238367"><ele>49.0</ele><time>2026-05-01T08:46:32.873Z</time></trkpt><trkpt lat="40.903045801780344" lon="8.814177838769668"><ele>48.0</ele><time>2026-05-01T08:46:33.873Z</time></trkpt><trkpt lat="40.903126931705096" lon="8.814165981666184"><ele>47.0</ele><time>2026-05-01T08:46:34.873Z</time></trkpt><trkpt lat="40.903217169006794" lon="8.814132635195888"><ele>47.0</ele><time>2026-05-01T08:46:35.873Z</time></trkpt><trkpt lat="40.9032903836055" lon="8.814090415367392"><ele>47.0</ele><time>2026-05-01T08:46:36.873Z</time></trkpt><trkpt lat="40.90337208595378" lon="8.814065282426368"><ele>47.0</ele><time>2026-05-01T08:46:37.873Z</time></trkpt><trkpt lat="40.90344270875484" lon="8.814031907396476"><ele>47.0</ele><time>2026-05-01T08:46:38.873Z</time></trkpt><trkpt lat="40.903521380746994" lon="8.813973747472092"><ele>47.0</ele><time>2026-05-01T08:46:39.873Z</time></trkpt><trkpt lat="40.90357923571564" lon="8.8139259695629"><ele>47.0</ele><time>2026-05-01T08:46:40.873Z</time></trkpt><trkpt lat="40.9036667215393" lon="8.813976048771094"><ele>45.666666666666664</ele><time>2026-05-01T08:46:43.873Z</time></trkpt><trkpt lat="40.90372784746032" lon="8.81401957505954"><ele>44.33333333333333</ele><time>2026-05-01T08:46:44.873Z</time></trkpt><trkpt lat="40.9037971293604" lon="8.814045048600741"><ele>43.0</ele><time>2026-05-01T08:46:45.873Z</time></trkpt><trkpt lat="40.90387877226577" lon="8.814058881569037"><ele>41.666666666666664</ele><time>2026-05-01T08:46:46.873Z</time></trkpt><trkpt lat="40.903950346128305" lon="8.814055619230869"><ele>40.333333333333336</ele><time>2026-05-01T08:46:47.873Z</time></trkpt><trkpt lat="40.90402131774948" lon="8.814033015683036"><ele>39.0</ele><time>2026-05-01T08:46:48.873Z</time></trkpt><trkpt lat="40.90412517511546" lon="8.813968417441464"><ele>39.0</ele><time>2026-05-01T08:46:50.873Z</time></trkpt><trkpt lat="40.904242224568016" lon="8.813862752627633"><ele>39.0</ele><time>2026-05-01T08:46:52.873Z</time></trkpt><trkpt lat="40.904315523901886" lon="8.81380344913799"><ele>39.0</ele><time>2026-05-01T08:46:53.873Z</time></trkpt><trkpt lat="40.90438752036527" lon="8.813744338507906"><ele>39.0</ele><time>2026-05-01T08:46:54.873Z</time></trkpt><trkpt lat="40.904459365493025" lon="8.813673237507865"><ele>39.0</ele><time>2026-05-01T08:46:55.873Z</time></trkpt><trkpt lat="40.90453194631036" lon="8.813598650186108"><ele>38.666666666666664</ele><time>2026-05-01T08:46:56.873Z</time></trkpt><trkpt lat="40.90461130508789" lon="8.81352300268448"><ele>38.333333333333336</ele><time>2026-05-01T08:46:57.873Z</time></trkpt><trkpt lat="40.904685638413575" lon="8.81346710721659"><ele>38.0</ele><time>2026-05-01T08:46:58.873Z</time></trkpt><trkpt lat="40.90475747797963" lon="8.81340466955858"><ele>37.66666666666667</ele><time>2026-05-01T08:46:59.873Z</time></trkpt><trkpt lat="40.90483307731563" lon="8.813352781759757"><ele>37.333333333333336</ele><time>2026-05-01T08:47:00.873Z</time></trkpt><trkpt lat="40.904906067025" lon="8.813312508613688"><ele>37.0</ele><time>2026-05-01T08:47:01.873Z</time></trkpt><trkpt lat="40.90497493376721" lon="8.81328328943604"><ele>36.66666666666667</ele><time>2026-05-01T08:47:02.873Z</time></trkpt><trkpt lat="40.9050386988859" lon="8.8132569042358"><ele>36.333333333333336</ele><time>2026-05-01T08:47:04.873Z</time></trkpt><trkpt lat="40.90510225441512" lon="8.813222910945184"><ele>36.0</ele><time>2026-05-01T08:47:06.873Z</time></trkpt><trkpt lat="40.905193360563246" lon="8.813162156328218"><ele>35.666666666666664</ele><time>2026-05-01T08:47:08.873Z</time></trkpt><trkpt lat="40.905309560575354" lon="8.813088359564588"><ele>35.33333333333333</ele><time>2026-05-01T08:47:10.873Z</time></trkpt><trkpt lat="40.90537105587551" lon="8.813044529299288"><ele>35.0</ele><time>2026-05-01T08:47:11.873Z</time></trkpt><trkpt lat="40.90545494592591" lon="8.812966296167936"><ele>35.0</ele><time>2026-05-01T08:47:13.873Z</time></trkpt><trkpt lat="40.90551281794741" lon="8.812902358412737"><ele>35.0</ele><time>2026-05-01T08:47:16.873Z</time></trkpt><trkpt lat="40.90556460056666" lon="8.812852786253503"><ele>35.0</ele><time>2026-05-01T08:47:17.873Z</time></trkpt><trkpt lat="40.90563279588434" lon="8.81278892201634"><ele>35.0</ele><time>2026-05-01T08:47:18.873Z</time></trkpt><trkpt lat="40.90572195038736" lon="8.81272406737622"><ele>35.0</ele><time>2026-05-01T08:47:19.873Z</time></trkpt><trkpt lat="40.90580755543301" lon="8.812664351215368"><ele>35.0</ele><time>2026-05-01T08:47:20.873Z</time></trkpt><trkpt lat="40.90589705977013" lon="8.812604006332855"><ele>35.8</ele><time>2026-05-01T08:47:21.873Z</time></trkpt><trkpt lat="40.90598940955505" lon="8.812536715598695"><ele>36.6</ele><time>2026-05-01T08:47:22.873Z</time></trkpt><trkpt lat="40.90608345474713" lon="8.812465142413343"><ele>37.4</ele><time>2026-05-01T08:47:23.873Z</time></trkpt><trkpt lat="40.90617070515155" lon="8.81239896327298"><ele>38.2</ele><time>2026-05-01T08:47:24.873Z</time></trkpt><trkpt lat="40.90624474117776" lon="8.812355262539041"><ele>39.0</ele><time>2026-05-01T08:47:25.873Z</time></trkpt><trkpt lat="40.906316298324676" lon="8.81231137436498"><ele>39.0</ele><time>2026-05-01T08:47:26.873Z</time></trkpt><trkpt lat="40.90638484838129" lon="8.812275894819791"><ele>39.0</ele><time>2026-05-01T08:47:27.873Z</time></trkpt><trkpt lat="40.90645260608827" lon="8.812248643452026"><ele>39.0</ele><time>2026-05-01T08:47:28.873Z</time></trkpt><trkpt lat="40.906527977823686" lon="8.812240209367095"><ele>39.0</ele><time>2026-05-01T08:47:29.873Z</time></trkpt><trkpt lat="40.906627339590926" lon="8.812292380828657"><ele>39.0</ele><time>2026-05-01T08:47:31.873Z</time></trkpt><trkpt lat="40.90668298882229" lon="8.812387391209784"><ele>39.0</ele><time>2026-05-01T08:47:33.873Z</time></trkpt><trkpt lat="40.906754267140215" lon="8.812509372955548"><ele>42.0</ele><time>2026-05-01T08:47:35.873Z</time></trkpt><trkpt lat="40.90681198148924" lon="8.812563782659456"><ele>45.0</ele><time>2026-05-01T08:47:36.873Z</time></trkpt><trkpt lat="40.90689196613155" lon="8.812588999997626"><ele>48.00000000000001</ele><time>2026-05-01T08:47:38.873Z</time></trkpt><trkpt lat="40.906946744362024" lon="8.81253398427629"><ele>51.0</ele><time>2026-05-01T08:47:40.873Z</time></trkpt><trkpt lat="40.906986631735485" lon="8.812389842415783"><ele>54.0</ele><time>2026-05-01T08:47:42.873Z</time></trkpt><trkpt lat="40.90704559445037" lon="8.812254362649034"><ele>54.0</ele><time>2026-05-01T08:47:44.872Z</time></trkpt><trkpt lat="40.90708409813713" lon="8.812180338715374"><ele>54.0</ele><time>2026-05-01T08:47:45.871Z</time></trkpt><trkpt lat="40.90712450855976" lon="8.812112345259893"><ele>54.0</ele><time>2026-05-01T08:47:46.871Z</time></trkpt><trkpt lat="40.90717285946083" lon="8.812053062157098"><ele>54.0</ele><time>2026-05-01T08:47:47.872Z</time></trkpt><trkpt lat="40.90722596481508" lon="8.811991316169454"><ele>54.0</ele><time>2026-05-01T08:47:48.872Z</time></trkpt><trkpt lat="40.90728304520394" lon="8.811938527517897"><ele>54.0</ele><time>2026-05-01T08:47:49.872Z</time></trkpt><trkpt lat="40.9073523808589" lon="8.81186850601157"><ele>54.0</ele><time>2026-05-01T08:47:50.871Z</time></trkpt><trkpt lat="40.907428696202345" lon="8.811794809137245"><ele>54.800000000000004</ele><time>2026-05-01T08:47:51.872Z</time></trkpt><trkpt lat="40.9074963373752" lon="8.811722654770502"><ele>55.60000000000001</ele><time>2026-05-01T08:47:52.872Z</time></trkpt><trkpt lat="40.90756774815016" lon="8.811637047410358"><ele>56.4</ele><time>2026-05-01T08:47:53.872Z</time></trkpt><trkpt lat="40.90763243551253" lon="8.811540065345381"><ele>57.2</ele><time>2026-05-01T08:47:54.871Z</time></trkpt><trkpt lat="40.90769428369085" lon="8.811424341870904"><ele>58.0</ele><time>2026-05-01T08:47:55.871Z</time></trkpt><trkpt lat="40.90774236834262" lon="8.81131410619803"><ele>59.33333333333333</ele><time>2026-05-01T08:47:56.872Z</time></trkpt><trkpt lat="40.90779310429323" lon="8.811210974463437"><ele>60.666666666666664</ele><time>2026-05-01T08:47:57.871Z</time></trkpt><trkpt lat="40.9078408981279" lon="8.811111041930445"><ele>62.0</ele><time>2026-05-01T08:47:58.871Z</time></trkpt><trkpt lat="40.90788645864714" lon="8.81103740108181"><ele>63.33333333333333</ele><time>2026-05-01T08:47:59.871Z</time></trkpt><trkpt lat="40.90793335861614" lon="8.810979813543025"><ele>64.66666666666667</ele><time>2026-05-01T08:48:00.871Z</time></trkpt><trkpt lat="40.908037610329124" lon="8.810900434289321"><ele>66.0</ele><time>2026-05-01T08:48:02.871Z</time></trkpt><trkpt lat="40.90810782349717" lon="8.810846602740641"><ele>66.39999999999999</ele><time>2026-05-01T08:48:03.871Z</time></trkpt><trkpt lat="40.9081950476088" lon="8.81075333371821"><ele>66.8</ele><time>2026-05-01T08:48:05.871Z</time></trkpt><trkpt lat="40.908204095684006" lon="8.810617890940323"><ele>67.19999999999999</ele><time>2026-05-01T08:48:07.871Z</time></trkpt><trkpt lat="40.9081452382702" lon="8.810442236866166"><ele>67.6</ele><time>2026-05-01T08:48:09.871Z</time></trkpt><trkpt lat="40.90809792165362" lon="8.81036157142132"><ele>68.0</ele><time>2026-05-01T08:48:10.871Z</time></trkpt><trkpt lat="40.90807012642968" lon="8.810276902837218"><ele>68.0</ele><time>2026-05-01T08:48:11.871Z</time></trkpt><trkpt lat="40.908067033534536" lon="8.810187717104517"><ele>68.0</ele><time>2026-05-01T08:48:12.871Z</time></trkpt><trkpt lat="40.908083666990066" lon="8.810094417169266"><ele>68.0</ele><time>2026-05-01T08:48:13.871Z</time></trkpt><trkpt lat="40.90811137172866" lon="8.809999868849452"><ele>68.0</ele><time>2026-05-01T08:48:14.871Z</time></trkpt><trkpt lat="40.90814963380571" lon="8.809896754666596"><ele>68.0</ele><time>2026-05-01T08:48:15.871Z</time></trkpt><trkpt lat="40.90818572442307" lon="8.809777705429088"><ele>68.0</ele><time>2026-05-01T08:48:16.871Z</time></trkpt><trkpt lat="40.9082339064824" lon="8.809658619787886"><ele>67.8</ele><time>2026-05-01T08:48:17.871Z</time></trkpt><trkpt lat="40.908277517487925" lon="8.809545502810499"><ele>67.6</ele><time>2026-05-01T08:48:18.871Z</time></trkpt><trkpt lat="40.90832222908072" lon="8.809428663662224"><ele>67.4</ele><time>2026-05-01T08:48:19.871Z</time></trkpt><trkpt lat="40.908359371155306" lon="8.80930658717128"><ele>67.2</ele><time>2026-05-01T08:48:20.871Z</time></trkpt><trkpt lat="40.90839697696808" lon="8.809185426685243"><ele>67.0</ele><time>2026-05-01T08:48:21.871Z</time></trkpt><trkpt lat="40.90843701783915" lon="8.809065595897977"><ele>67.6</ele><time>2026-05-01T08:48:22.871Z</time></trkpt><trkpt lat="40.908477513755464" lon="8.808949165751262"><ele>68.2</ele><time>2026-05-01T08:48:23.871Z</time></trkpt><trkpt lat="40.908513394168054" lon="8.80883086409845"><ele>68.8</ele><time>2026-05-01T08:48:24.871Z</time></trkpt><trkpt lat="40.90855345246338" lon="8.808719154239602"><ele>69.4</ele><time>2026-05-01T08:48:25.871Z</time></trkpt><trkpt lat="40.908594819962545" lon="8.808610280281915"><ele>70.0</ele><time>2026-05-01T08:48:26.871Z</time></trkpt><trkpt lat="40.90863097008471" lon="8.808509843598639"><ele>69.8</ele><time>2026-05-01T08:48:27.871Z</time></trkpt><trkpt lat="40.90866977348054" lon="8.808418262438956"><ele>69.6</ele><time>2026-05-01T08:48:28.871Z</time></trkpt><trkpt lat="40.90870335930631" lon="8.808341843021998"><ele>69.4</ele><time>2026-05-01T08:48:29.871Z</time></trkpt><trkpt lat="40.90877370981547" lon="8.808242397301715"><ele>69.2</ele><time>2026-05-01T08:48:31.871Z</time></trkpt><trkpt lat="40.90888240534516" lon="8.808227022062761"><ele>69.0</ele><time>2026-05-01T08:48:33.871Z</time></trkpt><trkpt lat="40.9089884041421" lon="8.808220160150812"><ele>69.0</ele><time>2026-05-01T08:48:35.871Z</time></trkpt><trkpt lat="40.909058950467745" lon="8.80822309458305"><ele>69.0</ele><time>2026-05-01T08:48:39.871Z</time></trkpt><trkpt lat="40.909082924545444" lon="8.808059881534687"><ele>69.0</ele><time>2026-05-01T08:48:41.871Z</time></trkpt><trkpt lat="40.90905305959309" lon="8.80798377019458"><ele>69.0</ele><time>2026-05-01T08:48:42.871Z</time></trkpt><trkpt lat="40.90904620739849" lon="8.807900773959942"><ele>69.0</ele><time>2026-05-01T08:48:43.871Z</time></trkpt><trkpt lat="40.909008010874814" lon="8.807763801602878"><ele>69.0</ele><time>2026-05-01T08:48:45.871Z</time></trkpt><trkpt lat="40.909005303208616" lon="8.807645867014978"><ele>69.2</ele><time>2026-05-01T08:48:47.871Z</time></trkpt><trkpt lat="40.908988900625076" lon="8.807534758615493"><ele>69.4</ele><time>2026-05-01T08:48:49.871Z</time></trkpt><trkpt lat="40.908963353158605" lon="8.807417118706038"><ele>69.6</ele><time>2026-05-01T08:48:51.871Z</time></trkpt><trkpt lat="40.90894105321737" lon="8.807278563861969"><ele>69.8</ele><time>2026-05-01T08:48:53.871Z</time></trkpt><trkpt lat="40.9089143571871" lon="8.807201354214438"><ele>70.0</ele><time>2026-05-01T08:48:54.871Z</time></trkpt><trkpt lat="40.90888113605722" lon="8.807037384701445"><ele>70.0</ele><time>2026-05-01T08:48:56.871Z</time></trkpt><trkpt lat="40.90885822969534" lon="8.806938983135618"><ele>70.0</ele><time>2026-05-01T08:48:57.871Z</time></trkpt><trkpt lat="40.90884165111619" lon="8.80684292152982"><ele>70.0</ele><time>2026-05-01T08:48:58.871Z</time></trkpt><trkpt lat="40.90882417508762" lon="8.806747114199247"><ele>70.0</ele><time>2026-05-01T08:48:59.871Z</time></trkpt><trkpt lat="40.90880531439577" lon="8.806648935813532"><ele>70.0</ele><time>2026-05-01T08:49:00.871Z</time></trkpt><trkpt lat="40.908784299054766" lon="8.806546791307909"><ele>70.0</ele><time>2026-05-01T08:49:01.87Z</time></trkpt><trkpt lat="40.90876297059867" lon="8.806444435287014"><ele>70.2</ele><time>2026-05-01T08:49:02.87Z</time></trkpt><trkpt lat="40.908744095182776" lon="8.806337072820284"><ele>70.4</ele><time>2026-05-01T08:49:03.87Z</time></trkpt><trkpt lat="40.908718061827386" lon="8.806219024941367"><ele>70.6</ele><time>2026-05-01T08:49:04.87Z</time></trkpt><trkpt lat="40.908692146390216" lon="8.806098808478728"><ele>70.8</ele><time>2026-05-01T08:49:05.87Z</time></trkpt><trkpt lat="40.90866348957509" lon="8.805974561199797"><ele>71.0</ele><time>2026-05-01T08:49:06.87Z</time></trkpt><trkpt lat="40.90863659620213" lon="8.805844509747168"><ele>71.2</ele><time>2026-05-01T08:49:07.87Z</time></trkpt><trkpt lat="40.908614116993334" lon="8.805742554432097"><ele>71.39999999999999</ele><time>2026-05-01T08:49:08.87Z</time></trkpt><trkpt lat="40.908584422384905" lon="8.805605754051397"><ele>71.6</ele><time>2026-05-01T08:49:09.87Z</time></trkpt><trkpt lat="40.90855403271793" lon="8.805468278466583"><ele>71.8</ele><time>2026-05-01T08:49:10.87Z</time></trkpt><trkpt lat="40.90852429070704" lon="8.805325869528843"><ele>72.0</ele><time>2026-05-01T08:49:11.87Z</time></trkpt><trkpt lat="40.90849804265988" lon="8.805187091076997"><ele>73.0</ele><time>2026-05-01T08:49:12.87Z</time></trkpt><trkpt lat="40.90846903186668" lon="8.805043633620006"><ele>74.0</ele><time>2026-05-01T08:49:13.87Z</time></trkpt><trkpt lat="40.90844113060685" lon="8.804901361015961"><ele>75.0</ele><time>2026-05-01T08:49:14.87Z</time></trkpt><trkpt lat="40.90841250547498" lon="8.804754425341955"><ele>76.0</ele><time>2026-05-01T08:49:15.87Z</time></trkpt><trkpt lat="40.90842355875433" lon="8.804605627496437"><ele>76.0</ele><time>2026-05-01T08:49:16.87Z</time></trkpt><trkpt lat="40.908431479903804" lon="8.804453344904447"><ele>76.0</ele><time>2026-05-01T08:49:17.87Z</time></trkpt><trkpt lat="40.90844089362533" lon="8.80428170302935"><ele>76.0</ele><time>2026-05-01T08:49:18.87Z</time></trkpt><trkpt lat="40.90845326091308" lon="8.804100781973908"><ele>76.0</ele><time>2026-05-01T08:49:19.87Z</time></trkpt><trkpt lat="40.90847153171047" lon="8.803908796330637"><ele>76.0</ele><time>2026-05-01T08:49:20.87Z</time></trkpt><trkpt lat="40.908488619228834" lon="8.803725948846497"><ele>76.0</ele><time>2026-05-01T08:49:21.87Z</time></trkpt><trkpt lat="40.90850940094241" lon="8.803559936954109"><ele>76.0</ele><time>2026-05-01T08:49:22.87Z</time></trkpt><trkpt lat="40.90852794236367" lon="8.803394479518541"><ele>76.0</ele><time>2026-05-01T08:49:23.87Z</time></trkpt><trkpt lat="40.90852596429861" lon="8.803226070281767"><ele>76.0</ele><time>2026-05-01T08:49:24.87Z</time></trkpt><trkpt lat="40.90854133353664" lon="8.803063655383827"><ele>76.0</ele><time>2026-05-01T08:49:25.87Z</time></trkpt><trkpt lat="40.90855005219226" lon="8.802899327630156"><ele>76.0</ele><time>2026-05-01T08:49:26.87Z</time></trkpt><trkpt lat="40.90854187487315" lon="8.802728900167176"><ele>76.0</ele><time>2026-05-01T08:49:27.87Z</time></trkpt><trkpt lat="40.908527986280866" lon="8.80255743806102"><ele>76.25</ele><time>2026-05-01T08:49:28.87Z</time></trkpt><trkpt lat="40.90851325140163" lon="8.802387781408088"><ele>76.5</ele><time>2026-05-01T08:49:29.87Z</time></trkpt><trkpt lat="40.9084978145788" lon="8.80222444214204"><ele>76.75</ele><time>2026-05-01T08:49:30.87Z</time></trkpt><trkpt lat="40.90849363345669" lon="8.802088596589877"><ele>77.0</ele><time>2026-05-01T08:49:31.87Z</time></trkpt><trkpt lat="40.90848594832158" lon="8.80195975027031"><ele>77.0</ele><time>2026-05-01T08:49:32.87Z</time></trkpt><trkpt lat="40.908484636755" lon="8.80184858315198"><ele>77.0</ele><time>2026-05-01T08:49:33.87Z</time></trkpt><trkpt lat="40.908494253973785" lon="8.801752917021346"><ele>77.0</ele><time>2026-05-01T08:49:34.87Z</time></trkpt><trkpt lat="40.90852335472926" lon="8.801670477712722"><ele>77.0</ele><time>2026-05-01T08:49:35.87Z</time></trkpt><trkpt lat="40.90855802415012" lon="8.801585650082876"><ele>77.0</ele><time>2026-05-01T08:49:36.87Z</time></trkpt><trkpt lat="40.908601998373136" lon="8.801507254225768"><ele>77.0</ele><time>2026-05-01T08:49:37.87Z</time></trkpt><trkpt lat="40.9086490886665" lon="8.80142947095379"><ele>77.0</ele><time>2026-05-01T08:49:38.87Z</time></trkpt><trkpt lat="40.90869698254477" lon="8.801342544931167"><ele>77.16666666666667</ele><time>2026-05-01T08:49:39.87Z</time></trkpt><trkpt lat="40.908741456422725" lon="8.801258010178787"><ele>77.33333333333334</ele><time>2026-05-01T08:49:40.87Z</time></trkpt><trkpt lat="40.90878931497086" lon="8.80116604385205"><ele>77.5</ele><time>2026-05-01T08:49:41.87Z</time></trkpt><trkpt lat="40.90883876202549" lon="8.801075101154444"><ele>77.66666666666667</ele><time>2026-05-01T08:49:42.87Z</time></trkpt><trkpt lat="40.908882719043184" lon="8.800987263482236"><ele>77.83333333333333</ele><time>2026-05-01T08:49:43.87Z</time></trkpt><trkpt lat="40.90892320214307" lon="8.800908460274934"><ele>78.0</ele><time>2026-05-01T08:49:44.87Z</time></trkpt><trkpt lat="40.908962549472434" lon="8.800837946474433"><ele>78.14285714285715</ele><time>2026-05-01T08:49:45.87Z</time></trkpt><trkpt lat="40.908999823802226" lon="8.800762818235942"><ele>78.28571428571428</ele><time>2026-05-01T08:49:46.87Z</time></trkpt><trkpt lat="40.909043483684975" lon="8.800682917962112"><ele>78.42857142857143</ele><time>2026-05-01T08:49:47.87Z</time></trkpt><trkpt lat="40.90908797831421" lon="8.80060013495906"><ele>78.57142857142858</ele><time>2026-05-01T08:49:48.87Z</time></trkpt><trkpt lat="40.90912928518229" lon="8.800529929407437"><ele>78.71428571428572</ele><time>2026-05-01T08:49:49.87Z</time></trkpt><trkpt lat="40.90917711362448" lon="8.800456942706676"><ele>78.85714285714286</ele><time>2026-05-01T08:49:52.869Z</time></trkpt><trkpt lat="40.909186464010666" lon="8.800372052259862"><ele>79.0</ele><time>2026-05-01T08:49:58.869Z</time></trkpt><trkpt lat="40.90930698999154" lon="8.800439941000267"><ele>79.0</ele><time>2026-05-01T08:50:00.869Z</time></trkpt><trkpt lat="40.90938364870235" lon="8.80047750024758"><ele>79.0</ele><time>2026-05-01T08:50:01.869Z</time></trkpt><trkpt lat="40.90944722558097" lon="8.80054105374148"><ele>79.0</ele><time>2026-05-01T08:50:02.869Z</time></trkpt><trkpt lat="40.90950645105365" lon="8.800602502127939"><ele>79.0</ele><time>2026-05-01T08:50:03.869Z</time></trkpt><trkpt lat="40.909579962268594" lon="8.800668193625153"><ele>79.0</ele><time>2026-05-01T08:50:04.869Z</time></trkpt><trkpt lat="40.90964597640915" lon="8.800729006706852"><ele>79.0</ele><time>2026-05-01T08:50:05.869Z</time></trkpt><trkpt lat="40.90972681204216" lon="8.80078411758383"><ele>79.0</ele><time>2026-05-01T08:50:06.869Z</time></trkpt><trkpt lat="40.909805407847145" lon="8.800853828750496"><ele>79.0</ele><time>2026-05-01T08:50:07.869Z</time></trkpt><trkpt lat="40.90987698894714" lon="8.800902282539449"><ele>79.0</ele><time>2026-05-01T08:50:08.869Z</time></trkpt><trkpt lat="40.90995896594668" lon="8.800933706554943"><ele>79.0</ele><time>2026-05-01T08:50:09.869Z</time></trkpt><trkpt lat="40.910043337968" lon="8.80098638267778"><ele>79.0</ele><time>2026-05-01T08:50:10.869Z</time></trkpt><trkpt lat="40.910126860734735" lon="8.8010385286976"><ele>79.0</ele><time>2026-05-01T08:50:11.869Z</time></trkpt><trkpt lat="40.910201377821664" lon="8.8011089655893"><ele>77.0</ele><time>2026-05-01T08:50:12.869Z</time></trkpt><trkpt lat="40.9102738264042" lon="8.801142607634292"><ele>75.0</ele><time>2026-05-01T08:50:13.869Z</time></trkpt><trkpt lat="40.910343698172255" lon="8.80117527901927"><ele>73.0</ele><time>2026-05-01T08:50:14.869Z</time></trkpt><trkpt lat="40.91041647316106" lon="8.8012099965656"><ele>71.0</ele><time>2026-05-01T08:50:15.869Z</time></trkpt><trkpt lat="40.910494760650664" lon="8.80124545212738"><ele>69.0</ele><time>2026-05-01T08:50:16.869Z</time></trkpt><trkpt lat="40.91057188088775" lon="8.8012742873459"><ele>67.0</ele><time>2026-05-01T08:50:17.869Z</time></trkpt><trkpt lat="40.91064342370907" lon="8.801303158097848"><ele>67.0</ele><time>2026-05-01T08:50:18.869Z</time></trkpt><trkpt lat="40.91070877656815" lon="8.801332472915291"><ele>67.0</ele><time>2026-05-01T08:50:19.869Z</time></trkpt><trkpt lat="40.91077643023987" lon="8.80136200984783"><ele>67.0</ele><time>2026-05-01T08:50:20.869Z</time></trkpt><trkpt lat="40.91084253424587" lon="8.801382641501695"><ele>67.0</ele><time>2026-05-01T08:50:21.869Z</time></trkpt><trkpt lat="40.9109635603085" lon="8.801428102451357"><ele>67.0</ele><time>2026-05-01T08:50:23.869Z</time></trkpt><trkpt lat="40.91102703883709" lon="8.801450947234434"><ele>67.0</ele><time>2026-05-01T08:50:24.869Z</time></trkpt><trkpt lat="40.911152171953276" lon="8.801505079682963"><ele>66.16666666666666</ele><time>2026-05-01T08:50:26.869Z</time></trkpt><trkpt lat="40.911217676354475" lon="8.801522439130569"><ele>65.33333333333333</ele><time>2026-05-01T08:50:27.869Z</time></trkpt><trkpt lat="40.91128181722953" lon="8.801542832513364"><ele>64.5</ele><time>2026-05-01T08:50:28.869Z</time></trkpt><trkpt lat="40.911349319925755" lon="8.801566638543582"><ele>63.66666666666667</ele><time>2026-05-01T08:50:29.869Z</time></trkpt><trkpt lat="40.91142714614074" lon="8.801591610151737"><ele>62.833333333333336</ele><time>2026-05-01T08:50:30.869Z</time></trkpt><trkpt lat="40.91151294233696" lon="8.801616830849676"><ele>62.0</ele><time>2026-05-01T08:50:31.869Z</time></trkpt><trkpt lat="40.91160633212004" lon="8.801645231227255"><ele>62.0</ele><time>2026-05-01T08:50:32.869Z</time></trkpt><trkpt lat="40.91170929191776" lon="8.801682918275125"><ele>62.0</ele><time>2026-05-01T08:50:33.869Z</time></trkpt><trkpt lat="40.911813575131376" lon="8.801723217793917"><ele>62.0</ele><time>2026-05-01T08:50:34.869Z</time></trkpt><trkpt lat="40.91192946382466" lon="8.801761036098792"><ele>62.0</ele><time>2026-05-01T08:50:35.869Z</time></trkpt><trkpt lat="40.912051527230766" lon="8.801797352819085"><ele>61.5</ele><time>2026-05-01T08:50:36.869Z</time></trkpt><trkpt lat="40.9121827146232" lon="8.801839233466003"><ele>61.0</ele><time>2026-05-01T08:50:37.869Z</time></trkpt><trkpt lat="40.912321433474496" lon="8.801890605484008"><ele>60.5</ele><time>2026-05-01T08:50:38.869Z</time></trkpt><trkpt lat="40.91246513889234" lon="8.801939620909144"><ele>60.0</ele><time>2026-05-01T08:50:39.869Z</time></trkpt><trkpt lat="40.91261151548561" lon="8.801986627108716"><ele>57.66666666666667</ele><time>2026-05-01T08:50:40.869Z</time></trkpt><trkpt lat="40.9127574238799" lon="8.802035129364086"><ele>55.333333333333336</ele><time>2026-05-01T08:50:41.869Z</time></trkpt><trkpt lat="40.91291094853074" lon="8.802086301116582"><ele>53.0</ele><time>2026-05-01T08:50:42.869Z</time></trkpt><trkpt lat="40.91306067044408" lon="8.802137073864419"><ele>53.0</ele><time>2026-05-01T08:50:43.869Z</time></trkpt><trkpt lat="40.9132125711435" lon="8.802185470796008"><ele>53.0</ele><time>2026-05-01T08:50:44.869Z</time></trkpt><trkpt lat="40.9133761113505" lon="8.802246571757234"><ele>53.0</ele><time>2026-05-01T08:50:45.869Z</time></trkpt><trkpt lat="40.913534627130645" lon="8.802299268400052"><ele>51.66666666666667</ele><time>2026-05-01T08:50:46.868Z</time></trkpt><trkpt lat="40.913686360858115" lon="8.802350303146408"><ele>50.33333333333333</ele><time>2026-05-01T08:50:47.868Z</time></trkpt><trkpt lat="40.913840590108734" lon="8.802405032738001"><ele>49.0</ele><time>2026-05-01T08:50:48.868Z</time></trkpt><trkpt lat="40.9139980342583" lon="8.802449922031052"><ele>49.0</ele><time>2026-05-01T08:50:49.868Z</time></trkpt><trkpt lat="40.91416321675896" lon="8.80250431681999"><ele>49.0</ele><time>2026-05-01T08:50:50.868Z</time></trkpt><trkpt lat="40.91432505042378" lon="8.802559753739796"><ele>49.0</ele><time>2026-05-01T08:50:51.868Z</time></trkpt><trkpt lat="40.91448870382098" lon="8.802620278270215"><ele>47.33333333333333</ele><time>2026-05-01T08:50:52.868Z</time></trkpt><trkpt lat="40.91465211773702" lon="8.80267997223993"><ele>45.666666666666664</ele><time>2026-05-01T08:50:53.868Z</time></trkpt><trkpt lat="40.91481436761049" lon="8.802739809856092"><ele>44.0</ele><time>2026-05-01T08:50:54.868Z</time></trkpt><trkpt lat="40.91497909465894" lon="8.802800034376089"><ele>42.33333333333333</ele><time>2026-05-01T08:50:55.868Z</time></trkpt><trkpt lat="40.915141173015876" lon="8.802845129486547"><ele>40.666666666666664</ele><time>2026-05-01T08:50:56.868Z</time></trkpt><trkpt lat="40.91529366218428" lon="8.802893820874143"><ele>39.0</ele><time>2026-05-01T08:50:57.868Z</time></trkpt><trkpt lat="40.91544949548381" lon="8.802945867485997"><ele>39.0</ele><time>2026-05-01T08:50:58.868Z</time></trkpt><trkpt lat="40.91560422094635" lon="8.802995704726793"><ele>39.0</ele><time>2026-05-01T08:50:59.868Z</time></trkpt><trkpt lat="40.915765420936495" lon="8.803046168269386"><ele>39.0</ele><time>2026-05-01T08:51:00.868Z</time></trkpt><trkpt lat="40.91592456936931" lon="8.803084668479633"><ele>37.666666666666664</ele><time>2026-05-01T08:51:01.868Z</time></trkpt><trkpt lat="40.91608410237799" lon="8.803106922254896"><ele>36.33333333333333</ele><time>2026-05-01T08:51:02.868Z</time></trkpt><trkpt lat="40.916255338722976" lon="8.803119057370123"><ele>35.0</ele><time>2026-05-01T08:51:03.868Z</time></trkpt><trkpt lat="40.91642724527242" lon="8.803129921471099"><ele>35.0</ele><time>2026-05-01T08:51:04.868Z</time></trkpt><trkpt lat="40.91659403989914" lon="8.80313437933732"><ele>35.0</ele><time>2026-05-01T08:51:05.868Z</time></trkpt><trkpt lat="40.91676843862424" lon="8.80313413908019"><ele>35.0</ele><time>2026-05-01T08:51:06.868Z</time></trkpt><trkpt lat="40.91693961860358" lon="8.803146003590523"><ele>33.666666666666664</ele><time>2026-05-01T08:51:07.868Z</time></trkpt><trkpt lat="40.917107542958526" lon="8.803152257223426"><ele>32.333333333333336</ele><time>2026-05-01T08:51:08.868Z</time></trkpt><trkpt lat="40.91727779745513" lon="8.803149558133747"><ele>31.0</ele><time>2026-05-01T08:51:09.868Z</time></trkpt><trkpt lat="40.91744727761515" lon="8.803152370884899"><ele>28.333333333333336</ele><time>2026-05-01T08:51:10.868Z</time></trkpt><trkpt lat="40.91762220043274" lon="8.803163865974973"><ele>25.666666666666668</ele><time>2026-05-01T08:51:11.868Z</time></trkpt><trkpt lat="40.9177848623796" lon="8.803171740448779"><ele>23.0</ele><time>2026-05-01T08:51:12.868Z</time></trkpt><trkpt lat="40.91794743443603" lon="8.803178901682761"><ele>23.0</ele><time>2026-05-01T08:51:13.868Z</time></trkpt><trkpt lat="40.91811699478017" lon="8.803180694518836"><ele>23.0</ele><time>2026-05-01T08:51:14.868Z</time></trkpt><trkpt lat="40.91828825896434" lon="8.803188948272267"><ele>23.0</ele><time>2026-05-01T08:51:15.868Z</time></trkpt><trkpt lat="40.918452335471954" lon="8.803191110375757"><ele>22.333333333333336</ele><time>2026-05-01T08:51:16.868Z</time></trkpt><trkpt lat="40.918626917216045" lon="8.803198222880242"><ele>21.666666666666668</ele><time>2026-05-01T08:51:17.868Z</time></trkpt><trkpt lat="40.91879831424312" lon="8.803201047537891"><ele>21.0</ele><time>2026-05-01T08:51:18.868Z</time></trkpt><trkpt lat="40.91897159077973" lon="8.803209667376805"><ele>21.0</ele><time>2026-05-01T08:51:19.868Z</time></trkpt><trkpt lat="40.91914990226151" lon="8.803217610103397"><ele>21.0</ele><time>2026-05-01T08:51:20.868Z</time></trkpt><trkpt lat="40.91932629955923" lon="8.803228445364201"><ele>21.0</ele><time>2026-05-01T08:51:21.868Z</time></trkpt><trkpt lat="40.91950066209243" lon="8.803234372870307"><ele>19.666666666666668</ele><time>2026-05-01T08:51:22.868Z</time></trkpt><trkpt lat="40.919678791821944" lon="8.803240672002364"><ele>18.333333333333336</ele><time>2026-05-01T08:51:23.868Z</time></trkpt><trkpt lat="40.91985900923666" lon="8.803248608209811"><ele>17.0</ele><time>2026-05-01T08:51:24.868Z</time></trkpt><trkpt lat="40.9200395520119" lon="8.803257894944224"><ele>16.666666666666668</ele><time>2026-05-01T08:51:25.868Z</time></trkpt><trkpt lat="40.92021160555656" lon="8.803264622071918"><ele>16.333333333333332</ele><time>2026-05-01T08:51:26.868Z</time></trkpt><trkpt lat="40.92037655865356" lon="8.803269157395231"><ele>16.0</ele><time>2026-05-01T08:51:27.868Z</time></trkpt><trkpt lat="40.92053570987936" lon="8.80327447134317"><ele>16.0</ele><time>2026-05-01T08:51:28.868Z</time></trkpt><trkpt lat="40.920691280559645" lon="8.803279728564466"><ele>16.0</ele><time>2026-05-01T08:51:29.868Z</time></trkpt><trkpt lat="40.9208352558238" lon="8.803288580210037"><ele>16.0</ele><time>2026-05-01T08:51:30.868Z</time></trkpt><trkpt lat="40.920985320132615" lon="8.803297644832899"><ele>14.0</ele><time>2026-05-01T08:51:31.868Z</time></trkpt><trkpt lat="40.92113655443976" lon="8.803300072234162"><ele>12.0</ele><time>2026-05-01T08:51:32.868Z</time></trkpt><trkpt lat="40.92128794356081" lon="8.803304794335507"><ele>10.0</ele><time>2026-05-01T08:51:33.868Z</time></trkpt><trkpt lat="40.9214392207167" lon="8.80332013723028"><ele>10.0</ele><time>2026-05-01T08:51:34.868Z</time></trkpt><trkpt lat="40.921580875051404" lon="8.803321826923616"><ele>10.0</ele><time>2026-05-01T08:51:35.868Z</time></trkpt><trkpt lat="40.92172227315178" lon="8.803322033662626"><ele>10.0</ele><time>2026-05-01T08:51:36.868Z</time></trkpt><trkpt lat="40.92185944041737" lon="8.80332717186253"><ele>10.0</ele><time>2026-05-01T08:51:37.868Z</time></trkpt><trkpt lat="40.92198875419959" lon="8.803334829161145"><ele>9.2</ele><time>2026-05-01T08:51:38.868Z</time></trkpt><trkpt lat="40.92211141633117" lon="8.803342806060005"><ele>8.4</ele><time>2026-05-01T08:51:39.868Z</time></trkpt><trkpt lat="40.922222956307316" lon="8.80335516701772"><ele>7.6</ele><time>2026-05-01T08:51:40.868Z</time></trkpt><trkpt lat="40.92232173778413" lon="8.803375506574065"><ele>6.8</ele><time>2026-05-01T08:51:41.868Z</time></trkpt><trkpt lat="40.922401669345646" lon="8.80341010196938"><ele>6.0</ele><time>2026-05-01T08:51:42.868Z</time></trkpt><trkpt lat="40.92247715789139" lon="8.803434707573365"><ele>6.0</ele><time>2026-05-01T08:51:43.868Z</time></trkpt><trkpt lat="40.92254388928476" lon="8.803457775382354"><ele>6.0</ele><time>2026-05-01T08:51:44.868Z</time></trkpt><trkpt lat="40.922614957080384" lon="8.803525939673184"><ele>6.0</ele><time>2026-05-01T08:51:46.868Z</time></trkpt><trkpt lat="40.9226865362221" lon="8.803411866403396"><ele>6.0</ele><time>2026-05-01T08:51:47.868Z</time></trkpt><trkpt lat="40.92275356902461" lon="8.803299520530349"><ele>6.0</ele><time>2026-05-01T08:51:49.868Z</time></trkpt><trkpt lat="40.922776323397066" lon="8.803219466318817"><ele>6.0</ele><time>2026-05-01T08:51:50.868Z</time></trkpt><trkpt lat="40.92278583222118" lon="8.803123573795416"><ele>6.0</ele><time>2026-05-01T08:51:51.868Z</time></trkpt><trkpt lat="40.92278152186186" lon="8.803021159990516"><ele>6.0</ele><time>2026-05-01T08:51:52.868Z</time></trkpt><trkpt lat="40.92276960613374" lon="8.802903229937414"><ele>6.0</ele><time>2026-05-01T08:51:53.868Z</time></trkpt><trkpt lat="40.92275709436755" lon="8.802768958498358"><ele>6.0</ele><time>2026-05-01T08:51:54.868Z</time></trkpt><trkpt lat="40.92274691907945" lon="8.80262449210467"><ele>6.0</ele><time>2026-05-01T08:51:55.868Z</time></trkpt><trkpt lat="40.922733672246544" lon="8.80247470543477"><ele>6.0</ele><time>2026-05-01T08:51:56.867Z</time></trkpt><trkpt lat="40.92272111840138" lon="8.802302421069571"><ele>6.0</ele><time>2026-05-01T08:51:57.867Z</time></trkpt><trkpt lat="40.92270044982932" lon="8.802134212948761"><ele>6.0</ele><time>2026-05-01T08:51:58.867Z</time></trkpt><trkpt lat="40.92270664849087" lon="8.801980248791638"><ele>6.0</ele><time>2026-05-01T08:51:59.867Z</time></trkpt><trkpt lat="40.92269916502815" lon="8.801861895666807"><ele>6.0</ele><time>2026-05-01T08:52:00.866Z</time></trkpt><trkpt lat="40.92269282576575" lon="8.801759887020479"><ele>6.0</ele><time>2026-05-01T08:52:01.866Z</time></trkpt><trkpt lat="40.92268435869135" lon="8.80166369983678"><ele>6.0</ele><time>2026-05-01T08:52:02.867Z</time></trkpt><trkpt lat="40.922675038096955" lon="8.801571583984936"><ele>6.0</ele><time>2026-05-01T08:52:03.867Z</time></trkpt><trkpt lat="40.922649651426205" lon="8.801486287471947"><ele>6.0</ele><time>2026-05-01T08:52:04.867Z</time></trkpt><trkpt lat="40.9226474862407" lon="8.801399324910564"><ele>6.0</ele><time>2026-05-01T08:52:05.867Z</time></trkpt><trkpt lat="40.922621955379775" lon="8.801236818614747"><ele>6.0</ele><time>2026-05-01T08:52:07.866Z</time></trkpt><trkpt lat="40.922607371725306" lon="8.801072253149163"><ele>6.0</ele><time>2026-05-01T08:52:09.867Z</time></trkpt><trkpt lat="40.922583213748176" lon="8.800910800682404"><ele>6.0</ele><time>2026-05-01T08:52:11.867Z</time></trkpt><trkpt lat="40.922555402474316" lon="8.800761093023096"><ele>6.0</ele><time>2026-05-01T08:52:13.867Z</time></trkpt><trkpt lat="40.92253634084541" lon="8.800672838947765"><ele>6.0</ele><time>2026-05-01T08:52:14.867Z</time></trkpt><trkpt lat="40.92251686893528" lon="8.800570649840692"><ele>6.199999999999999</ele><time>2026-05-01T08:52:15.867Z</time></trkpt><trkpt lat="40.922499637058785" lon="8.800455248175517"><ele>6.3999999999999995</ele><time>2026-05-01T08:52:16.867Z</time></trkpt><trkpt lat="40.92248174781224" lon="8.80031684105998"><ele>6.6</ele><time>2026-05-01T08:52:17.867Z</time></trkpt><trkpt lat="40.92244967719542" lon="8.800166184128424"><ele>6.8</ele><time>2026-05-01T08:52:18.867Z</time></trkpt><trkpt lat="40.922413180575994" lon="8.800006456539432"><ele>7.0</ele><time>2026-05-01T08:52:19.867Z</time></trkpt><trkpt lat="40.92239204076089" lon="8.799801859277315"><ele>7.0</ele><time>2026-05-01T08:52:20.867Z</time></trkpt><trkpt lat="40.92235834716586" lon="8.799576988552502"><ele>7.0</ele><time>2026-05-01T08:52:21.867Z</time></trkpt><trkpt lat="40.92232264637159" lon="8.799360143968288"><ele>7.0</ele><time>2026-05-01T08:52:22.867Z</time></trkpt><trkpt lat="40.92228604100143" lon="8.799132398977784"><ele>7.333333333333334</ele><time>2026-05-01T08:52:23.867Z</time></trkpt><trkpt lat="40.92224327172739" lon="8.7989025248173"><ele>7.666666666666666</ele><time>2026-05-01T08:52:24.867Z</time></trkpt><trkpt lat="40.92219716029652" lon="8.798678234829604"><ele>8.0</ele><time>2026-05-01T08:52:25.867Z</time></trkpt><trkpt lat="40.92215293735703" lon="8.79846580085437"><ele>8.0</ele><time>2026-05-01T08:52:26.867Z</time></trkpt><trkpt lat="40.92211835174782" lon="8.798263319157089"><ele>8.0</ele><time>2026-05-01T08:52:27.867Z</time></trkpt><trkpt lat="40.922088962807244" lon="8.798058827001881"><ele>8.0</ele><time>2026-05-01T08:52:28.867Z</time></trkpt><trkpt lat="40.92205828628399" lon="8.797854625267853"><ele>8.333333333333332</ele><time>2026-05-01T08:52:29.867Z</time></trkpt><trkpt lat="40.92202888405049" lon="8.797651138563115"><ele>8.666666666666666</ele><time>2026-05-01T08:52:30.867Z</time></trkpt><trkpt lat="40.921997914657176" lon="8.797448170145858"><ele>9.0</ele><time>2026-05-01T08:52:31.867Z</time></trkpt><trkpt lat="40.92196232396587" lon="8.797244784272277"><ele>9.0</ele><time>2026-05-01T08:52:32.867Z</time></trkpt><trkpt lat="40.92192209096717" lon="8.797042333989388"><ele>9.0</ele><time>2026-05-01T08:52:33.867Z</time></trkpt><trkpt lat="40.921873528252554" lon="8.796837137287282"><ele>9.0</ele><time>2026-05-01T08:52:34.867Z</time></trkpt><trkpt lat="40.92181484789437" lon="8.796644154704124"><ele>9.666666666666666</ele><time>2026-05-01T08:52:35.867Z</time></trkpt><trkpt lat="40.921747956473524" lon="8.79645845908104"><ele>10.333333333333332</ele><time>2026-05-01T08:52:36.867Z</time></trkpt><trkpt lat="40.92166808683984" lon="8.796267309935882"><ele>11.0</ele><time>2026-05-01T08:52:37.867Z</time></trkpt><trkpt lat="40.921593762221214" lon="8.79605937213244"><ele>12.666666666666666</ele><time>2026-05-01T08:52:38.867Z</time></trkpt><trkpt lat="40.921504908759054" lon="8.79584080436381"><ele>14.333333333333332</ele><time>2026-05-01T08:52:39.867Z</time></trkpt><trkpt lat="40.92140853250123" lon="8.795631242894041"><ele>16.0</ele><time>2026-05-01T08:52:40.867Z</time></trkpt><trkpt lat="40.921291684039616" lon="8.795441197578294"><ele>16.0</ele><time>2026-05-01T08:52:41.867Z</time></trkpt><trkpt lat="40.92120383721705" lon="8.795237486935864"><ele>16.0</ele><time>2026-05-01T08:52:42.867Z</time></trkpt><trkpt lat="40.921096285621815" lon="8.795055297457774"><ele>16.0</ele><time>2026-05-01T08:52:43.867Z</time></trkpt><trkpt lat="40.92101863484401" lon="8.794852971729538"><ele>16.0</ele><time>2026-05-01T08:52:44.867Z</time></trkpt><trkpt lat="40.9209376688328" lon="8.794664544634712"><ele>16.0</ele><time>2026-05-01T08:52:45.867Z</time></trkpt><trkpt lat="40.92086595156871" lon="8.794477177172743"><ele>16.0</ele><time>2026-05-01T08:52:46.867Z</time></trkpt><trkpt lat="40.92080333109166" lon="8.794275369765959"><ele>16.333333333333332</ele><time>2026-05-01T08:52:47.867Z</time></trkpt><trkpt lat="40.920733184175596" lon="8.79405735868018"><ele>16.666666666666668</ele><time>2026-05-01T08:52:48.867Z</time></trkpt><trkpt lat="40.9206601602065" lon="8.793823781880103"><ele>17.0</ele><time>2026-05-01T08:52:49.866Z</time></trkpt><trkpt lat="40.92058689387" lon="8.793584733412066"><ele>16.666666666666668</ele><time>2026-05-01T08:52:50.866Z</time></trkpt><trkpt lat="40.920518538769166" lon="8.793354328640218"><ele>16.333333333333332</ele><time>2026-05-01T08:52:51.866Z</time></trkpt><trkpt lat="40.920449378081145" lon="8.793120168731264"><ele>16.0</ele><time>2026-05-01T08:52:52.866Z</time></trkpt><trkpt lat="40.92038390625017" lon="8.792910527857368"><ele>16.0</ele><time>2026-05-01T08:52:53.866Z</time></trkpt><trkpt lat="40.92032485380932" lon="8.792710213037228"><ele>16.0</ele><time>2026-05-01T08:52:54.866Z</time></trkpt><trkpt lat="40.92026452168952" lon="8.792508976779748"><ele>16.0</ele><time>2026-05-01T08:52:55.866Z</time></trkpt><trkpt lat="40.920205570018155" lon="8.792308760019967"><ele>16.333333333333332</ele><time>2026-05-01T08:52:56.866Z</time></trkpt><trkpt lat="40.9201446504887" lon="8.792103806996431"><ele>16.666666666666668</ele><time>2026-05-01T08:52:57.866Z</time></trkpt><trkpt lat="40.92008099546066" lon="8.791898751678382"><ele>17.0</ele><time>2026-05-01T08:52:58.866Z</time></trkpt><trkpt lat="40.920018189480416" lon="8.791699362852507"><ele>17.666666666666668</ele><time>2026-05-01T08:52:59.866Z</time></trkpt><trkpt lat="40.91995691182155" lon="8.791490829685783"><ele>18.333333333333332</ele><time>2026-05-01T08:53:00.866Z</time></trkpt><trkpt lat="40.91988835281465" lon="8.791275900698048"><ele>19.0</ele><time>2026-05-01T08:53:01.866Z</time></trkpt><trkpt lat="40.919823215877415" lon="8.791057552035484"><ele>19.0</ele><time>2026-05-01T08:53:02.866Z</time></trkpt><trkpt lat="40.919758319236614" lon="8.790834918218776"><ele>19.0</ele><time>2026-05-01T08:53:03.866Z</time></trkpt><trkpt lat="40.919692162317645" lon="8.790608415904304"><ele>19.0</ele><time>2026-05-01T08:53:04.866Z</time></trkpt><trkpt lat="40.91962175750839" lon="8.790377023046677"><ele>19.0</ele><time>2026-05-01T08:53:05.866Z</time></trkpt><trkpt lat="40.919551294904096" lon="8.79014461921392"><ele>19.0</ele><time>2026-05-01T08:53:06.866Z</time></trkpt><trkpt lat="40.919481740431884" lon="8.789913732164514"><ele>19.0</ele><time>2026-05-01T08:53:07.866Z</time></trkpt><trkpt lat="40.919413490187054" lon="8.789678215969229"><ele>19.0</ele><time>2026-05-01T08:53:08.866Z</time></trkpt><trkpt lat="40.91934271643479" lon="8.789440224961371"><ele>19.0</ele><time>2026-05-01T08:53:09.866Z</time></trkpt><trkpt lat="40.91927207984147" lon="8.789202049555247"><ele>19.0</ele><time>2026-05-01T08:53:10.866Z</time></trkpt><trkpt lat="40.91920194794636" lon="8.788965855790138"><ele>20.0</ele><time>2026-05-01T08:53:11.866Z</time></trkpt><trkpt lat="40.91913209863083" lon="8.788728804542767"><ele>21.0</ele><time>2026-05-01T08:53:12.866Z</time></trkpt><trkpt lat="40.91906019425486" lon="8.788494218330078"><ele>22.0</ele><time>2026-05-01T08:53:13.866Z</time></trkpt><trkpt lat="40.918988482385586" lon="8.788255192471823"><ele>22.0</ele><time>2026-05-01T08:53:14.866Z</time></trkpt><trkpt lat="40.91891593715677" lon="8.788016695785377"><ele>22.0</ele><time>2026-05-01T08:53:15.866Z</time></trkpt><trkpt lat="40.918842106904506" lon="8.787776514237594"><ele>22.0</ele><time>2026-05-01T08:53:16.866Z</time></trkpt><trkpt lat="40.91876953343715" lon="8.787530950167284"><ele>22.0</ele><time>2026-05-01T08:53:17.866Z</time></trkpt><trkpt lat="40.91869881482886" lon="8.787287127308936"><ele>22.0</ele><time>2026-05-01T08:53:18.866Z</time></trkpt><trkpt lat="40.91862436871132" lon="8.787045344214752"><ele>22.0</ele><time>2026-05-01T08:53:19.866Z</time></trkpt><trkpt lat="40.918553992531656" lon="8.786807936506463"><ele>22.333333333333332</ele><time>2026-05-01T08:53:20.866Z</time></trkpt><trkpt lat="40.91848048465809" lon="8.786566640157824"><ele>22.666666666666668</ele><time>2026-05-01T08:53:21.866Z</time></trkpt><trkpt lat="40.91840706077632" lon="8.786322667582727"><ele>23.0</ele><time>2026-05-01T08:53:22.866Z</time></trkpt><trkpt lat="40.91833770550836" lon="8.786081223189768"><ele>23.0</ele><time>2026-05-01T08:53:23.866Z</time></trkpt><trkpt lat="40.918268655511525" lon="8.785842106875688"><ele>23.0</ele><time>2026-05-01T08:53:24.866Z</time></trkpt><trkpt lat="40.91819811302678" lon="8.78560205025494"><ele>23.0</ele><time>2026-05-01T08:53:25.866Z</time></trkpt><trkpt lat="40.91813074951319" lon="8.785359407782705"><ele>22.666666666666668</ele><time>2026-05-01T08:53:26.866Z</time></trkpt><trkpt lat="40.91806364885643" lon="8.7851112936584"><ele>22.333333333333332</ele><time>2026-05-01T08:53:27.866Z</time></trkpt><trkpt lat="40.917994578947976" lon="8.784857376269459"><ele>22.0</ele><time>2026-05-01T08:53:28.866Z</time></trkpt><trkpt lat="40.91792640794958" lon="8.784593776877587"><ele>21.333333333333332</ele><time>2026-05-01T08:53:29.866Z</time></trkpt><trkpt lat="40.91786039539058" lon="8.784330258552375"><ele>20.666666666666668</ele><time>2026-05-01T08:53:30.866Z</time></trkpt><trkpt lat="40.917797800953906" lon="8.784078630363057"><ele>20.0</ele><time>2026-05-01T08:53:31.866Z</time></trkpt><trkpt lat="40.91773622471565" lon="8.783839841155217"><ele>20.0</ele><time>2026-05-01T08:53:32.866Z</time></trkpt><trkpt lat="40.917677503814765" lon="8.783614442262891"><ele>20.0</ele><time>2026-05-01T08:53:33.866Z</time></trkpt><trkpt lat="40.91762087096542" lon="8.783394088787404"><ele>20.0</ele><time>2026-05-01T08:53:34.866Z</time></trkpt><trkpt lat="40.91756530886676" lon="8.783180235468391"><ele>20.333333333333336</ele><time>2026-05-01T08:53:35.866Z</time></trkpt><trkpt lat="40.91750934661936" lon="8.782975663827791"><ele>20.666666666666668</ele><time>2026-05-01T08:53:36.866Z</time></trkpt><trkpt lat="40.91746034474335" lon="8.782774850341161"><ele>21.0</ele><time>2026-05-01T08:53:37.866Z</time></trkpt><trkpt lat="40.91741298944146" lon="8.782578701976943"><ele>20.0</ele><time>2026-05-01T08:53:38.866Z</time></trkpt><trkpt lat="40.91736512264845" lon="8.782389792628184"><ele>19.0</ele><time>2026-05-01T08:53:39.866Z</time></trkpt><trkpt lat="40.91731269933125" lon="8.782203809137282"><ele>18.0</ele><time>2026-05-01T08:53:40.866Z</time></trkpt><trkpt lat="40.917260984990904" lon="8.782010149644504"><ele>18.25</ele><time>2026-05-01T08:53:41.866Z</time></trkpt><trkpt lat="40.91721419415228" lon="8.78182054329824"><ele>18.5</ele><time>2026-05-01T08:53:42.866Z</time></trkpt><trkpt lat="40.917169158956675" lon="8.78163658029931"><ele>18.75</ele><time>2026-05-01T08:53:43.866Z</time></trkpt><trkpt lat="40.91712519071365" lon="8.781462405287366"><ele>19.0</ele><time>2026-05-01T08:53:44.866Z</time></trkpt><trkpt lat="40.9170814312248" lon="8.781292986530342"><ele>19.0</ele><time>2026-05-01T08:53:45.866Z</time></trkpt><trkpt lat="40.91703810932727" lon="8.781125971147587"><ele>19.0</ele><time>2026-05-01T08:53:46.866Z</time></trkpt><trkpt lat="40.9169952465327" lon="8.780963384626247"><ele>19.0</ele><time>2026-05-01T08:53:47.866Z</time></trkpt><trkpt lat="40.91695152803514" lon="8.780806323760826"><ele>19.0</ele><time>2026-05-01T08:53:48.866Z</time></trkpt><trkpt lat="40.91691183251913" lon="8.78065942910082"><ele>19.166666666666664</ele><time>2026-05-01T08:53:49.866Z</time></trkpt><trkpt lat="40.91687789981417" lon="8.780524807268192"><ele>19.333333333333332</ele><time>2026-05-01T08:53:50.866Z</time></trkpt><trkpt lat="40.91684854079138" lon="8.780409489491767"><ele>19.5</ele><time>2026-05-01T08:53:51.866Z</time></trkpt><trkpt lat="40.916817939523035" lon="8.78031142385225"><ele>19.666666666666668</ele><time>2026-05-01T08:53:52.866Z</time></trkpt><trkpt lat="40.91678362596155" lon="8.780224266088217"><ele>19.833333333333336</ele><time>2026-05-01T08:53:53.866Z</time></trkpt><trkpt lat="40.91674795972404" lon="8.780137888729424"><ele>20.0</ele><time>2026-05-01T08:53:54.866Z</time></trkpt><trkpt lat="40.916710265887225" lon="8.780051841178024"><ele>21.0</ele><time>2026-05-01T08:53:55.866Z</time></trkpt><trkpt lat="40.91666717161547" lon="8.77997494949163"><ele>22.0</ele><time>2026-05-01T08:53:56.866Z</time></trkpt><trkpt lat="40.91661950954355" lon="8.77990621959918"><ele>23.0</ele><time>2026-05-01T08:53:57.866Z</time></trkpt><trkpt lat="40.91657549930949" lon="8.779845304768637"><ele>24.0</ele><time>2026-05-01T08:53:58.866Z</time></trkpt><trkpt lat="40.9165035074555" lon="8.77973100192154"><ele>24.999999999999996</ele><time>2026-05-01T08:54:00.866Z</time></trkpt><trkpt lat="40.91644625160634" lon="8.77963641882628"><ele>26.0</ele><time>2026-05-01T08:54:02.865Z</time></trkpt><trkpt lat="40.916370946701036" lon="8.77955013068572"><ele>26.0</ele><time>2026-05-01T08:54:04.864Z</time></trkpt><trkpt lat="40.916318697012706" lon="8.779485617494936"><ele>26.0</ele><time>2026-05-01T08:54:06.865Z</time></trkpt><trkpt lat="40.91621097196665" lon="8.779531488492621"><ele>26.0</ele><time>2026-05-01T08:54:08.865Z</time></trkpt><trkpt lat="40.91609495267661" lon="8.779563290881514"><ele>26.0</ele><time>2026-05-01T08:54:10.864Z</time></trkpt><trkpt lat="40.916021923266065" lon="8.779608867724349"><ele>26.0</ele><time>2026-05-01T08:54:11.864Z</time></trkpt><trkpt lat="40.91592044001389" lon="8.779646372449188"><ele>27.0</ele><time>2026-05-01T08:54:12.865Z</time></trkpt><trkpt lat="40.91580632823576" lon="8.77968436771771"><ele>28.0</ele><time>2026-05-01T08:54:13.865Z</time></trkpt><trkpt lat="40.91568808491074" lon="8.779726434206566"><ele>29.0</ele><time>2026-05-01T08:54:14.864Z</time></trkpt><trkpt lat="40.91556815524861" lon="8.779771371038512"><ele>30.0</ele><time>2026-05-01T08:54:15.864Z</time></trkpt><trkpt lat="40.91545192496619" lon="8.779813830715275"><ele>30.0</ele><time>2026-05-01T08:54:16.864Z</time></trkpt><trkpt lat="40.915327153442384" lon="8.77985802938004"><ele>30.0</ele><time>2026-05-01T08:54:17.864Z</time></trkpt><trkpt lat="40.91519513807121" lon="8.779906411938121"><ele>30.0</ele><time>2026-05-01T08:54:18.864Z</time></trkpt><trkpt lat="40.91511881402523" lon="8.779939688635574"><ele>30.0</ele><time>2026-05-01T08:54:19.864Z</time></trkpt><trkpt lat="40.91502233015569" lon="8.779980964458238"><ele>30.0</ele><time>2026-05-01T08:54:20.864Z</time></trkpt><trkpt lat="40.91492661931064" lon="8.780023237329404"><ele>31.2</ele><time>2026-05-01T08:54:21.864Z</time></trkpt><trkpt lat="40.91482897974817" lon="8.780034824034656"><ele>32.4</ele><time>2026-05-01T08:54:22.864Z</time></trkpt><trkpt lat="40.914737290263965" lon="8.780057022340557"><ele>33.6</ele><time>2026-05-01T08:54:23.864Z</time></trkpt><trkpt lat="40.91464551894266" lon="8.780081117808914"><ele>34.8</ele><time>2026-05-01T08:54:24.864Z</time></trkpt><trkpt lat="40.91454783463494" lon="8.780106765973098"><ele>36.0</ele><time>2026-05-01T08:54:25.864Z</time></trkpt><trkpt lat="40.914440112186554" lon="8.780136380774573"><ele>36.0</ele><time>2026-05-01T08:54:26.864Z</time></trkpt><trkpt lat="40.914329264217265" lon="8.780172993660981"><ele>36.0</ele><time>2026-05-01T08:54:27.864Z</time></trkpt><trkpt lat="40.9142175095193" lon="8.780211217994776"><ele>36.0</ele><time>2026-05-01T08:54:28.864Z</time></trkpt><trkpt lat="40.91410010614375" lon="8.780260369926127"><ele>36.0</ele><time>2026-05-01T08:54:29.864Z</time></trkpt><trkpt lat="40.91397932874807" lon="8.780286357794921"><ele>36.6</ele><time>2026-05-01T08:54:30.864Z</time></trkpt><trkpt lat="40.913862742089066" lon="8.780279727708095"><ele>37.2</ele><time>2026-05-01T08:54:31.864Z</time></trkpt><trkpt lat="40.91376491284508" lon="8.780301171245897"><ele>37.8</ele><time>2026-05-01T08:54:32.864Z</time></trkpt><trkpt lat="40.913670516686125" lon="8.780288765025611"><ele>38.4</ele><time>2026-05-01T08:54:33.864Z</time></trkpt><trkpt lat="40.91359330129564" lon="8.780291105311754"><ele>39.0</ele><time>2026-05-01T08:54:34.863Z</time></trkpt><trkpt lat="40.91352276620286" lon="8.780322503608284"><ele>39.0</ele><time>2026-05-01T08:54:37.863Z</time></trkpt><trkpt lat="40.91344144733697" lon="8.780419925174787"><ele>39.0</ele><time>2026-05-01T08:54:40.863Z</time></trkpt><trkpt lat="40.91332524255093" lon="8.780476657620476"><ele>39.0</ele><time>2026-05-01T08:54:42.863Z</time></trkpt><trkpt lat="40.91326546844481" lon="8.780521086572572"><ele>39.0</ele><time>2026-05-01T08:54:43.863Z</time></trkpt><trkpt lat="40.91318587583305" lon="8.780582711361525"><ele>39.0</ele><time>2026-05-01T08:54:44.863Z</time></trkpt><trkpt lat="40.91310515281852" lon="8.780645211597813"><ele>39.8</ele><time>2026-05-01T08:54:45.863Z</time></trkpt><trkpt lat="40.91302047116107" lon="8.780726147413898"><ele>40.599999999999994</ele><time>2026-05-01T08:54:46.863Z</time></trkpt><trkpt lat="40.912923581438676" lon="8.780782368935881"><ele>41.4</ele><time>2026-05-01T08:54:47.863Z</time></trkpt><trkpt lat="40.91282081420903" lon="8.78083731048475"><ele>42.199999999999996</ele><time>2026-05-01T08:54:48.863Z</time></trkpt><trkpt lat="40.912714160348884" lon="8.780884921152705"><ele>43.0</ele><time>2026-05-01T08:54:49.863Z</time></trkpt><trkpt lat="40.9126050477077" lon="8.780933733625869"><ele>45.0</ele><time>2026-05-01T08:54:50.863Z</time></trkpt><trkpt lat="40.91249666272988" lon="8.780948297067727"><ele>47.0</ele><time>2026-05-01T08:54:51.863Z</time></trkpt><trkpt lat="40.912397069207174" lon="8.780991709360132"><ele>49.0</ele><time>2026-05-01T08:54:52.863Z</time></trkpt><trkpt lat="40.91229401497194" lon="8.781021530953874"><ele>51.0</ele><time>2026-05-01T08:54:53.863Z</time></trkpt><trkpt lat="40.912190068332976" lon="8.781048745749892"><ele>53.0</ele><time>2026-05-01T08:54:54.863Z</time></trkpt><trkpt lat="40.912088493244404" lon="8.781076149066955"><ele>53.2</ele><time>2026-05-01T08:54:55.863Z</time></trkpt><trkpt lat="40.91198735436912" lon="8.781102438903613"><ele>53.4</ele><time>2026-05-01T08:54:56.863Z</time></trkpt><trkpt lat="40.91189164846332" lon="8.781116991401298"><ele>53.60000000000001</ele><time>2026-05-01T08:54:57.863Z</time></trkpt><trkpt lat="40.91180047673823" lon="8.781118116831443"><ele>53.800000000000004</ele><time>2026-05-01T08:54:58.863Z</time></trkpt><trkpt lat="40.91171491011973" lon="8.781100154356247"><ele>54.0</ele><time>2026-05-01T08:54:59.863Z</time></trkpt><trkpt lat="40.91163075054164" lon="8.78106947551335"><ele>55.6</ele><time>2026-05-01T08:55:00.863Z</time></trkpt><trkpt lat="40.91154234182098" lon="8.781036074530121"><ele>57.2</ele><time>2026-05-01T08:55:01.863Z</time></trkpt><trkpt lat="40.911460503610975" lon="8.7810155930509"><ele>58.800000000000004</ele><time>2026-05-01T08:55:02.863Z</time></trkpt><trkpt lat="40.911371634881235" lon="8.78101102372414"><ele>60.400000000000006</ele><time>2026-05-01T08:55:03.863Z</time></trkpt><trkpt lat="40.91128028130914" lon="8.78099693638299"><ele>62.0</ele><time>2026-05-01T08:55:04.863Z</time></trkpt><trkpt lat="40.9111694447721" lon="8.781005112614304"><ele>62.0</ele><time>2026-05-01T08:55:05.863Z</time></trkpt><trkpt lat="40.91105233725058" lon="8.781015632385596"><ele>62.0</ele><time>2026-05-01T08:55:06.863Z</time></trkpt><trkpt lat="40.910935272239065" lon="8.781024349536043"><ele>62.0</ele><time>2026-05-01T08:55:07.863Z</time></trkpt><trkpt lat="40.91081729704747" lon="8.781032622763325"><ele>62.0</ele><time>2026-05-01T08:55:08.863Z</time></trkpt><trkpt lat="40.910700122358804" lon="8.78105055652871"><ele>63.25</ele><time>2026-05-01T08:55:09.863Z</time></trkpt><trkpt lat="40.91057004669646" lon="8.781084469576594"><ele>64.5</ele><time>2026-05-01T08:55:10.863Z</time></trkpt><trkpt lat="40.91043587737435" lon="8.781117028491998"><ele>65.75</ele><time>2026-05-01T08:55:11.863Z</time></trkpt><trkpt lat="40.91030036850208" lon="8.781146079629517"><ele>67.0</ele><time>2026-05-01T08:55:12.863Z</time></trkpt><trkpt lat="40.91015937121102" lon="8.781175811406971"><ele>69.5</ele><time>2026-05-01T08:55:13.863Z</time></trkpt><trkpt lat="40.910014124196906" lon="8.781207740536308"><ele>72.0</ele><time>2026-05-01T08:55:14.863Z</time></trkpt><trkpt lat="40.90987035447866" lon="8.781244712546606"><ele>74.5</ele><time>2026-05-01T08:55:15.863Z</time></trkpt><trkpt lat="40.909730617987805" lon="8.781284604669677"><ele>77.0</ele><time>2026-05-01T08:55:16.863Z</time></trkpt><trkpt lat="40.909596098935545" lon="8.781330638317332"><ele>77.0</ele><time>2026-05-01T08:55:17.863Z</time></trkpt><trkpt lat="40.90945678658779" lon="8.781379692855186"><ele>77.0</ele><time>2026-05-01T08:55:18.863Z</time></trkpt><trkpt lat="40.90932584137448" lon="8.781418206804716"><ele>77.0</ele><time>2026-05-01T08:55:19.863Z</time></trkpt><trkpt lat="40.90919885238527" lon="8.781450283376811"><ele>77.0</ele><time>2026-05-01T08:55:20.863Z</time></trkpt><trkpt lat="40.90907176875861" lon="8.78148401676275"><ele>79.25</ele><time>2026-05-01T08:55:21.863Z</time></trkpt><trkpt lat="40.90894781484543" lon="8.781514425836555"><ele>81.5</ele><time>2026-05-01T08:55:22.863Z</time></trkpt><trkpt lat="40.90882128750876" lon="8.781546010717824"><ele>83.75</ele><time>2026-05-01T08:55:23.863Z</time></trkpt><trkpt lat="40.90869392548683" lon="8.781583078139477"><ele>86.0</ele><time>2026-05-01T08:55:24.863Z</time></trkpt><trkpt lat="40.9085618115214" lon="8.781618321507146"><ele>86.0</ele><time>2026-05-01T08:55:25.863Z</time></trkpt><trkpt lat="40.90843523087347" lon="8.781654533648066"><ele>86.0</ele><time>2026-05-01T08:55:26.863Z</time></trkpt><trkpt lat="40.90831206901461" lon="8.78168820542664"><ele>86.0</ele><time>2026-05-01T08:55:27.863Z</time></trkpt><trkpt lat="40.90817615475147" lon="8.781713979158459"><ele>86.0</ele><time>2026-05-01T08:55:28.863Z</time></trkpt><trkpt lat="40.90804543840039" lon="8.781730505222006"><ele>88.5</ele><time>2026-05-01T08:55:29.863Z</time></trkpt><trkpt lat="40.90791256324447" lon="8.781738086187719"><ele>91.0</ele><time>2026-05-01T08:55:30.863Z</time></trkpt><trkpt lat="40.907787163993525" lon="8.781723064730116"><ele>93.5</ele><time>2026-05-01T08:55:31.863Z</time></trkpt><trkpt lat="40.90766753166724" lon="8.781712182157536"><ele>96.0</ele><time>2026-05-01T08:55:32.863Z</time></trkpt><trkpt lat="40.90756447735133" lon="8.781684391039013"><ele>98.19999999999999</ele><time>2026-05-01T08:55:33.863Z</time></trkpt><trkpt lat="40.907464883920184" lon="8.781641443009866"><ele>100.39999999999999</ele><time>2026-05-01T08:55:34.863Z</time></trkpt><trkpt lat="40.90737205872759" lon="8.781591567316685"><ele>102.6</ele><time>2026-05-01T08:55:35.863Z</time></trkpt><trkpt lat="40.907287905431005" lon="8.781534317489735"><ele>104.8</ele><time>2026-05-01T08:55:36.863Z</time></trkpt><trkpt lat="40.90721214540178" lon="8.781468981067267"><ele>107.0</ele><time>2026-05-01T08:55:37.863Z</time></trkpt><trkpt lat="40.90714781128042" lon="8.781392423356198"><ele>106.99999999999999</ele><time>2026-05-01T08:55:38.863Z</time></trkpt><trkpt lat="40.90708964282215" lon="8.78130158205034"><ele>107.0</ele><time>2026-05-01T08:55:39.863Z</time></trkpt><trkpt lat="40.90702358816381" lon="8.781208592108602"><ele>107.0</ele><time>2026-05-01T08:55:40.863Z</time></trkpt><trkpt lat="40.90695592308609" lon="8.781135679675323"><ele>107.0</ele><time>2026-05-01T08:55:41.863Z</time></trkpt><trkpt lat="40.906881156628025" lon="8.781079668646562"><ele>106.99999999999999</ele><time>2026-05-01T08:55:42.863Z</time></trkpt><trkpt lat="40.906810748287214" lon="8.78103263165736"><ele>107.0</ele><time>2026-05-01T08:55:43.863Z</time></trkpt><trkpt lat="40.90675093393514" lon="8.780973690561765"><ele>109.8</ele><time>2026-05-01T08:55:44.863Z</time></trkpt><trkpt lat="40.9067239244833" lon="8.780886992993421"><ele>112.6</ele><time>2026-05-01T08:55:45.863Z</time></trkpt><trkpt lat="40.90669259815724" lon="8.780734840704335"><ele>115.39999999999999</ele><time>2026-05-01T08:55:47.863Z</time></trkpt><trkpt lat="40.90664790948008" lon="8.780643424096521"><ele>118.19999999999999</ele><time>2026-05-01T08:55:48.863Z</time></trkpt><trkpt lat="40.90659139786725" lon="8.780558139144432"><ele>121.0</ele><time>2026-05-01T08:55:49.863Z</time></trkpt><trkpt lat="40.90654588313436" lon="8.780441287541658"><ele>121.0</ele><time>2026-05-01T08:55:50.863Z</time></trkpt><trkpt lat="40.90650341055203" lon="8.780309680507033"><ele>121.0</ele><time>2026-05-01T08:55:51.863Z</time></trkpt><trkpt lat="40.9064669548728" lon="8.780176722255607"><ele>121.0</ele><time>2026-05-01T08:55:52.862Z</time></trkpt><trkpt lat="40.90644610018872" lon="8.780036300692379"><ele>121.0</ele><time>2026-05-01T08:55:53.862Z</time></trkpt><trkpt lat="40.906455919289435" lon="8.779886550940823"><ele>121.0</ele><time>2026-05-01T08:55:54.862Z</time></trkpt><trkpt lat="40.9064549444892" lon="8.77972302835395"><ele>122.25</ele><time>2026-05-01T08:55:55.862Z</time></trkpt><trkpt lat="40.90642459866608" lon="8.779564352524377"><ele>123.5</ele><time>2026-05-01T08:55:56.862Z</time></trkpt><trkpt lat="40.90639590483956" lon="8.779414064811418"><ele>124.75</ele><time>2026-05-01T08:55:57.862Z</time></trkpt><trkpt lat="40.90638659305113" lon="8.779256161385806"><ele>126.0</ele><time>2026-05-01T08:55:58.862Z</time></trkpt><trkpt lat="40.906375838504964" lon="8.779115058094558"><ele>127.83333333333333</ele><time>2026-05-01T08:55:59.862Z</time></trkpt><trkpt lat="40.90638146330067" lon="8.77901308497961"><ele>129.66666666666666</ele><time>2026-05-01T08:56:00.862Z</time></trkpt><trkpt lat="40.90638320167209" lon="8.778913778257989"><ele>131.5</ele><time>2026-05-01T08:56:01.862Z</time></trkpt><trkpt lat="40.90637246538464" lon="8.778796152194653"><ele>133.33333333333331</ele><time>2026-05-01T08:56:02.862Z</time></trkpt><trkpt lat="40.906359497374574" lon="8.778684260915625"><ele>135.16666666666666</ele><time>2026-05-01T08:56:03.862Z</time></trkpt><trkpt lat="40.90633782090278" lon="8.778595910275195"><ele>137.0</ele><time>2026-05-01T08:56:04.862Z</time></trkpt><trkpt lat="40.90630511001768" lon="8.77852340300844"><ele>138.0</ele><time>2026-05-01T08:56:05.862Z</time></trkpt><trkpt lat="40.90627657082922" lon="8.778445421398336"><ele>139.0</ele><time>2026-05-01T08:56:06.862Z</time></trkpt><trkpt lat="40.906220864657634" lon="8.778380023493737"><ele>140.0</ele><time>2026-05-01T08:56:07.862Z</time></trkpt><trkpt lat="40.90613912558054" lon="8.778326114546484"><ele>141.0</ele><time>2026-05-01T08:56:08.863Z</time></trkpt><trkpt lat="40.90605035002564" lon="8.778310430080172"><ele>142.0</ele><time>2026-05-01T08:56:09.862Z</time></trkpt><trkpt lat="40.90597772706647" lon="8.778300786869478"><ele>143.0</ele><time>2026-05-01T08:56:10.862Z</time></trkpt><trkpt lat="40.90589917528474" lon="8.778289474628414"><ele>141.28571428571428</ele><time>2026-05-01T08:56:11.862Z</time></trkpt><trkpt lat="40.90583394327928" lon="8.778237388573052"><ele>139.57142857142856</ele><time>2026-05-01T08:56:12.862Z</time></trkpt><trkpt lat="40.905772424425095" lon="8.778203129506936"><ele>137.85714285714286</ele><time>2026-05-01T08:56:13.862Z</time></trkpt><trkpt lat="40.90571038249567" lon="8.778186897604096"><ele>136.14285714285714</ele><time>2026-05-01T08:56:14.862Z</time></trkpt><trkpt lat="40.90562869419671" lon="8.778182065561555"><ele>134.42857142857144</ele><time>2026-05-01T08:56:16.862Z</time></trkpt><trkpt lat="40.90555524415497" lon="8.778180229711488"><ele>132.71428571428572</ele><time>2026-05-01T08:56:33.862Z</time></trkpt><trkpt lat="40.905487179459094" lon="8.778178389603845"><ele>131.0</ele><time>2026-05-01T08:56:35.862Z</time></trkpt><trkpt lat="40.90541783552287" lon="8.778175065316365"><ele>131.0</ele><time>2026-05-01T08:56:37.862Z</time></trkpt><trkpt lat="40.90534404813901" lon="8.778172245620288"><ele>131.0</ele><time>2026-05-01T08:56:39.862Z</time></trkpt><trkpt lat="40.90528030791832" lon="8.778175068793052"><ele>131.0</ele><time>2026-05-01T08:56:41.862Z</time></trkpt><trkpt lat="40.90521247971033" lon="8.778190911314072"><ele>131.0</ele><time>2026-05-01T08:56:43.862Z</time></trkpt><trkpt lat="40.90514806767785" lon="8.778213648787082"><ele>131.0</ele><time>2026-05-01T08:56:45.862Z</time></trkpt><trkpt lat="40.90507981469411" lon="8.77822745436773"><ele>131.0</ele><time>2026-05-01T08:56:48.862Z</time></trkpt><trkpt lat="40.90498174331046" lon="8.778176874548123"><ele>131.0</ele><time>2026-05-01T08:56:50.862Z</time></trkpt><trkpt lat="40.90492018853908" lon="8.778117571141934"><ele>129.5</ele><time>2026-05-01T08:56:51.862Z</time></trkpt><trkpt lat="40.90486209052355" lon="8.778053170657335"><ele>128.0</ele><time>2026-05-01T08:56:52.862Z</time></trkpt><trkpt lat="40.90481016090154" lon="8.777974362665775"><ele>126.5</ele><time>2026-05-01T08:56:53.862Z</time></trkpt><trkpt lat="40.904766650079566" lon="8.777889256859943"><ele>125.0</ele><time>2026-05-01T08:56:54.862Z</time></trkpt><trkpt lat="40.90473148327155" lon="8.777799434601743"><ele>123.49999999999999</ele><time>2026-05-01T08:56:55.862Z</time></trkpt><trkpt lat="40.90469616013911" lon="8.777708043348687"><ele>122.0</ele><time>2026-05-01T08:56:56.862Z</time></trkpt><trkpt lat="40.90466198800345" lon="8.77761949329412"><ele>121.16666666666666</ele><time>2026-05-01T08:56:57.862Z</time></trkpt><trkpt lat="40.904629917124915" lon="8.777540090532048"><ele>120.33333333333333</ele><time>2026-05-01T08:56:58.862Z</time></trkpt><trkpt lat="40.90455146281234" lon="8.7774059841623"><ele>119.5</ele><time>2026-05-01T08:57:00.862Z</time></trkpt><trkpt lat="40.90449791985094" lon="8.777346955160944"><ele>118.66666666666666</ele><time>2026-05-01T08:57:01.862Z</time></trkpt><trkpt lat="40.90444359965055" lon="8.777271085532783"><ele>117.83333333333333</ele><time>2026-05-01T08:57:02.862Z</time></trkpt><trkpt lat="40.90437209080657" lon="8.7772251937488"><ele>117.0</ele><time>2026-05-01T08:57:03.862Z</time></trkpt><trkpt lat="40.90431259890879" lon="8.777154927275586"><ele>117.0</ele><time>2026-05-01T08:57:04.862Z</time></trkpt><trkpt lat="40.90426100635974" lon="8.777076145455512"><ele>117.0</ele><time>2026-05-01T08:57:05.862Z</time></trkpt><trkpt lat="40.90422385486951" lon="8.776989507693836"><ele>117.0</ele><time>2026-05-01T08:57:06.862Z</time></trkpt><trkpt lat="40.904195103139" lon="8.776889736631466"><ele>117.0</ele><time>2026-05-01T08:57:07.862Z</time></trkpt><trkpt lat="40.9041655966624" lon="8.776765360146312"><ele>117.0</ele><time>2026-05-01T08:57:08.862Z</time></trkpt><trkpt lat="40.90414342026524" lon="8.776621536021095"><ele>117.0</ele><time>2026-05-01T08:57:09.862Z</time></trkpt><trkpt lat="40.904117962580386" lon="8.77646895506515"><ele>115.0</ele><time>2026-05-01T08:57:10.861Z</time></trkpt><trkpt lat="40.904096745121656" lon="8.776310994257148"><ele>113.0</ele><time>2026-05-01T08:57:11.861Z</time></trkpt><trkpt lat="40.9040759450106" lon="8.77615247180781"><ele>111.0</ele><time>2026-05-01T08:57:12.861Z</time></trkpt><trkpt lat="40.90405768350056" lon="8.776001739915237"><ele>109.0</ele><time>2026-05-01T08:57:13.861Z</time></trkpt><trkpt lat="40.90404476589525" lon="8.77584863538698"><ele>108.6</ele><time>2026-05-01T08:57:14.861Z</time></trkpt><trkpt lat="40.904041833557194" lon="8.77569263349079"><ele>108.2</ele><time>2026-05-01T08:57:15.861Z</time></trkpt><trkpt lat="40.904045422576125" lon="8.775552818750871"><ele>107.79999999999998</ele><time>2026-05-01T08:57:16.861Z</time></trkpt><trkpt lat="40.90403820535373" lon="8.7754275411107"><ele>107.39999999999999</ele><time>2026-05-01T08:57:17.861Z</time></trkpt><trkpt lat="40.90401204804286" lon="8.77531291986072"><ele>107.0</ele><time>2026-05-01T08:57:18.86Z</time></trkpt><trkpt lat="40.903979714545095" lon="8.775212562754781"><ele>107.49999999999999</ele><time>2026-05-01T08:57:19.86Z</time></trkpt><trkpt lat="40.90393404912927" lon="8.77511847763154"><ele>108.0</ele><time>2026-05-01T08:57:20.86Z</time></trkpt><trkpt lat="40.9038835422165" lon="8.775047181069874"><ele>108.5</ele><time>2026-05-01T08:57:21.86Z</time></trkpt><trkpt lat="40.90384904350052" lon="8.774967701732947"><ele>109.0</ele><time>2026-05-01T08:57:22.86Z</time></trkpt><trkpt lat="40.903720412190715" lon="8.774913083455885"><ele>109.49999999999999</ele><time>2026-05-01T08:57:24.86Z</time></trkpt><trkpt lat="40.90365120222039" lon="8.774932141486168"><ele>110.0</ele><time>2026-05-01T08:57:25.86Z</time></trkpt><trkpt lat="40.90356592496029" lon="8.774939441316452"><ele>110.0</ele><time>2026-05-01T08:57:26.86Z</time></trkpt><trkpt lat="40.90347082476722" lon="8.774918424367039"><ele>110.0</ele><time>2026-05-01T08:57:27.86Z</time></trkpt><trkpt lat="40.90338557631069" lon="8.774927171565405"><ele>110.0</ele><time>2026-05-01T08:57:28.86Z</time></trkpt><trkpt lat="40.903301730053116" lon="8.77491039563756"><ele>110.0</ele><time>2026-05-01T08:57:29.86Z</time></trkpt><trkpt lat="40.903228259257595" lon="8.774894985381497"><ele>110.0</ele><time>2026-05-01T08:57:30.86Z</time></trkpt><trkpt lat="40.9031180351613" lon="8.774863402173267"><ele>108.99999999999999</ele><time>2026-05-01T08:57:32.86Z</time></trkpt><trkpt lat="40.903050440735406" lon="8.774791850271534"><ele>108.0</ele><time>2026-05-01T08:57:34.859Z</time></trkpt><trkpt lat="40.903010102610914" lon="8.774669057880915"><ele>107.0</ele><time>2026-05-01T08:57:36.859Z</time></trkpt><trkpt lat="40.90299669687077" lon="8.77457352834367"><ele>106.0</ele><time>2026-05-01T08:57:37.859Z</time></trkpt><trkpt lat="40.90297845972259" lon="8.774467923702579"><ele>104.99999999999999</ele><time>2026-05-01T08:57:38.859Z</time></trkpt><trkpt lat="40.90296219983137" lon="8.77436771989032"><ele>104.0</ele><time>2026-05-01T08:57:39.859Z</time></trkpt><trkpt lat="40.90293695976849" lon="8.774245791088665"><ele>104.0</ele><time>2026-05-01T08:57:40.859Z</time></trkpt><trkpt lat="40.902909335563514" lon="8.774109029880062"><ele>104.0</ele><time>2026-05-01T08:57:41.859Z</time></trkpt><trkpt lat="40.90288597660469" lon="8.773947055174984"><ele>104.0</ele><time>2026-05-01T08:57:42.859Z</time></trkpt><trkpt lat="40.902859460140945" lon="8.773778277476733"><ele>104.0</ele><time>2026-05-01T08:57:43.859Z</time></trkpt><trkpt lat="40.902826884320646" lon="8.773614131450486"><ele>105.5</ele><time>2026-05-01T08:57:44.859Z</time></trkpt><trkpt lat="40.90278838655606" lon="8.773435435190168"><ele>107.0</ele><time>2026-05-01T08:57:45.859Z</time></trkpt><trkpt lat="40.902757929814456" lon="8.773251846460811"><ele>108.5</ele><time>2026-05-01T08:57:46.859Z</time></trkpt><trkpt lat="40.90272453606002" lon="8.773070587697315"><ele>110.0</ele><time>2026-05-01T08:57:47.859Z</time></trkpt><trkpt lat="40.902694054991564" lon="8.77289839071251"><ele>110.0</ele><time>2026-05-01T08:57:48.859Z</time></trkpt><trkpt lat="40.902667605567004" lon="8.772730145180057"><ele>110.0</ele><time>2026-05-01T08:57:49.859Z</time></trkpt><trkpt lat="40.90264437594096" lon="8.772565363824357"><ele>110.0</ele><time>2026-05-01T08:57:50.859Z</time></trkpt><trkpt lat="40.90261956461572" lon="8.772404148923501"><ele>110.0</ele><time>2026-05-01T08:57:51.859Z</time></trkpt><trkpt lat="40.90259221404347" lon="8.772237059506011"><ele>110.0</ele><time>2026-05-01T08:57:52.859Z</time></trkpt><trkpt lat="40.902558455454255" lon="8.772067355201008"><ele>110.0</ele><time>2026-05-01T08:57:53.859Z</time></trkpt><trkpt lat="40.902531084619504" lon="8.77191236541927"><ele>110.0</ele><time>2026-05-01T08:57:54.859Z</time></trkpt><trkpt lat="40.90249807761671" lon="8.771775255141891"><ele>110.0</ele><time>2026-05-01T08:57:55.859Z</time></trkpt><trkpt lat="40.90246901074922" lon="8.77164428864029"><ele>110.0</ele><time>2026-05-01T08:57:56.859Z</time></trkpt><trkpt lat="40.902428695820504" lon="8.771520061431284"><ele>110.0</ele><time>2026-05-01T08:57:57.859Z</time></trkpt><trkpt lat="40.902369193644674" lon="8.771402179986328"><ele>110.0</ele><time>2026-05-01T08:57:58.859Z</time></trkpt><trkpt lat="40.902294481660284" lon="8.771285645820319"><ele>110.0</ele><time>2026-05-01T08:57:59.859Z</time></trkpt><trkpt lat="40.90220671954205" lon="8.77117206587816"><ele>110.0</ele><time>2026-05-01T08:58:00.859Z</time></trkpt><trkpt lat="40.90210751512126" lon="8.771056737240361"><ele>110.5</ele><time>2026-05-01T08:58:01.859Z</time></trkpt><trkpt lat="40.90199618026285" lon="8.770944772977643"><ele>111.0</ele><time>2026-05-01T08:58:02.859Z</time></trkpt><trkpt lat="40.901879940211124" lon="8.770829784277613"><ele>111.5</ele><time>2026-05-01T08:58:03.859Z</time></trkpt><trkpt lat="40.901775413293656" lon="8.770724672732891"><ele>112.0</ele><time>2026-05-01T08:58:04.859Z</time></trkpt><trkpt lat="40.90168239723288" lon="8.770640700430981"><ele>112.00000000000001</ele><time>2026-05-01T08:58:05.859Z</time></trkpt><trkpt lat="40.901614693871686" lon="8.770577497992296"><ele>112.0</ele><time>2026-05-01T08:58:06.859Z</time></trkpt><trkpt lat="40.90155816631691" lon="8.770522461411945"><ele>112.0</ele><time>2026-05-01T08:58:07.859Z</time></trkpt><trkpt lat="40.90150914549737" lon="8.770446793209132"><ele>112.0</ele><time>2026-05-01T08:58:09.859Z</time></trkpt><trkpt lat="40.901552167643345" lon="8.770311796680886"><ele>112.00000000000001</ele><time>2026-05-01T08:58:13.859Z</time></trkpt><trkpt lat="40.90164989739045" lon="8.77030319649254"><ele>112.0</ele><time>2026-05-01T08:58:15.858Z</time></trkpt><trkpt lat="40.901711926064166" lon="8.770286545874406"><ele>112.50000000000001</ele><time>2026-05-01T08:58:16.858Z</time></trkpt><trkpt lat="40.90177580251609" lon="8.770270091767598"><ele>113.0</ele><time>2026-05-01T08:58:17.858Z</time></trkpt><trkpt lat="40.90185571771881" lon="8.770250614884771"><ele>113.5</ele><time>2026-05-01T08:58:18.858Z</time></trkpt><trkpt lat="40.901946644730295" lon="8.770228011540205"><ele>114.0</ele><time>2026-05-01T08:58:19.858Z</time></trkpt><trkpt lat="40.90202928128254" lon="8.770183249708568"><ele>114.50000000000001</ele><time>2026-05-01T08:58:20.858Z</time></trkpt><trkpt lat="40.9021136992058" lon="8.770165986022164"><ele>115.0</ele><time>2026-05-01T08:58:21.858Z</time></trkpt><trkpt lat="40.902181516823376" lon="8.770146978944739"><ele>116.66666666666667</ele><time>2026-05-01T08:58:22.858Z</time></trkpt><trkpt lat="40.90224380354754" lon="8.770117350177655"><ele>118.33333333333334</ele><time>2026-05-01T08:58:23.858Z</time></trkpt><trkpt lat="40.90229895677979" lon="8.770075409227267"><ele>120.0</ele><time>2026-05-01T08:58:24.858Z</time></trkpt><trkpt lat="40.90239359070401" lon="8.769982332051287"><ele>121.66666666666666</ele><time>2026-05-01T08:58:26.858Z</time></trkpt><trkpt lat="40.902477387017264" lon="8.769867324224236"><ele>123.33333333333333</ele><time>2026-05-01T08:58:28.858Z</time></trkpt><trkpt lat="40.90252300923586" lon="8.769802827307235"><ele>125.0</ele><time>2026-05-01T08:58:29.858Z</time></trkpt><trkpt lat="40.90257312496932" lon="8.769742489606049"><ele>126.83333333333333</ele><time>2026-05-01T08:58:30.858Z</time></trkpt><trkpt lat="40.90262259125312" lon="8.769689884377662"><ele>128.66666666666666</ele><time>2026-05-01T08:58:31.858Z</time></trkpt><trkpt lat="40.90275194318754" lon="8.769663041127291"><ele>130.5</ele><time>2026-05-01T08:58:33.858Z</time></trkpt><trkpt lat="40.90281306572063" lon="8.76963654942955"><ele>132.33333333333334</ele><time>2026-05-01T08:58:34.858Z</time></trkpt><trkpt lat="40.90287891117997" lon="8.76962012742479"><ele>134.16666666666669</ele><time>2026-05-01T08:58:35.858Z</time></trkpt><trkpt lat="40.902949882774294" lon="8.769596027218286"><ele>136.0</ele><time>2026-05-01T08:58:36.858Z</time></trkpt><trkpt lat="40.90303656922713" lon="8.769566261917124"><ele>136.0</ele><time>2026-05-01T08:58:37.858Z</time></trkpt><trkpt lat="40.903123158470805" lon="8.769531919888497"><ele>136.0</ele><time>2026-05-01T08:58:38.858Z</time></trkpt><trkpt lat="40.90321342446863" lon="8.769513029387662"><ele>136.0</ele><time>2026-05-01T08:58:39.858Z</time></trkpt><trkpt lat="40.90330088259117" lon="8.76947466043422"><ele>136.0</ele><time>2026-05-01T08:58:40.858Z</time></trkpt><trkpt lat="40.903386258586075" lon="8.769463982016589"><ele>136.0</ele><time>2026-05-01T08:58:41.858Z</time></trkpt><trkpt lat="40.903469251981505" lon="8.769456551607618"><ele>136.0</ele><time>2026-05-01T08:58:42.858Z</time></trkpt><trkpt lat="40.903544629238375" lon="8.769462416058458"><ele>137.83333333333334</ele><time>2026-05-01T08:58:43.858Z</time></trkpt><trkpt lat="40.90361517846113" lon="8.769488027572427"><ele>139.66666666666669</ele><time>2026-05-01T08:58:44.858Z</time></trkpt><trkpt lat="40.90367230053032" lon="8.769533517897475"><ele>141.5</ele><time>2026-05-01T08:58:45.858Z</time></trkpt><trkpt lat="40.903730729060484" lon="8.769596142892933"><ele>143.33333333333334</ele><time>2026-05-01T08:58:46.858Z</time></trkpt><trkpt lat="40.90379437932748" lon="8.769672472141536"><ele>145.16666666666666</ele><time>2026-05-01T08:58:47.858Z</time></trkpt><trkpt lat="40.90386252536527" lon="8.769755930689218"><ele>147.0</ele><time>2026-05-01T08:58:48.858Z</time></trkpt><trkpt lat="40.90393101618384" lon="8.769841562574358"><ele>147.0</ele><time>2026-05-01T08:58:49.858Z</time></trkpt><trkpt lat="40.90400937724186" lon="8.769924530926543"><ele>147.0</ele><time>2026-05-01T08:58:50.858Z</time></trkpt><trkpt lat="40.904081442169165" lon="8.769990239860524"><ele>147.0</ele><time>2026-05-01T08:58:51.858Z</time></trkpt><trkpt lat="40.904141595346545" lon="8.770062860165458"><ele>147.0</ele><time>2026-05-01T08:58:52.858Z</time></trkpt><trkpt lat="40.904219059566486" lon="8.770131033465416"><ele>147.0</ele><time>2026-05-01T08:58:53.858Z</time></trkpt><trkpt lat="40.9042784134894" lon="8.770178631042809"><ele>147.0</ele><time>2026-05-01T08:58:54.858Z</time></trkpt><trkpt lat="40.90433859544398" lon="8.770229627825255"><ele>145.75</ele><time>2026-05-01T08:58:55.858Z</time></trkpt><trkpt lat="40.90445169077562" lon="8.770277641053507"><ele>144.5</ele><time>2026-05-01T08:58:57.857Z</time></trkpt><trkpt lat="40.904544291772936" lon="8.770303456888891"><ele>143.25</ele><time>2026-05-01T08:58:58.857Z</time></trkpt><trkpt lat="40.90464636690964" lon="8.770306619280563"><ele>142.0</ele><time>2026-05-01T08:58:59.857Z</time></trkpt><trkpt lat="40.90484613692884" lon="8.770224466338773"><ele>145.2</ele><time>2026-05-01T08:59:00.857Z</time></trkpt><trkpt lat="40.90487370651823" lon="8.770140566069328"><ele>148.39999999999998</ele><time>2026-05-01T08:59:02.857Z</time></trkpt><trkpt lat="40.90484998252153" lon="8.770002465896367"><ele>151.60000000000002</ele><time>2026-05-01T08:59:05.857Z</time></trkpt><trkpt lat="40.90479672618453" lon="8.769885058108047"><ele>154.8</ele><time>2026-05-01T08:59:07.857Z</time></trkpt><trkpt lat="40.904730816514444" lon="8.769739961227339"><ele>158.0</ele><time>2026-05-01T08:59:09.857Z</time></trkpt><trkpt lat="40.90467722240688" lon="8.769682321515265"><ele>158.0</ele><time>2026-05-01T08:59:10.857Z</time></trkpt><trkpt lat="40.90463656694173" lon="8.769615048304823"><ele>158.0</ele><time>2026-05-01T08:59:11.857Z</time></trkpt><trkpt lat="40.904610885842466" lon="8.769534658172912"><ele>158.0</ele><time>2026-05-01T08:59:12.857Z</time></trkpt><trkpt lat="40.90457031214615" lon="8.769441967855949"><ele>158.0</ele><time>2026-05-01T08:59:13.857Z</time></trkpt><trkpt lat="40.90452893573976" lon="8.769345111351207"><ele>158.0</ele><time>2026-05-01T08:59:14.857Z</time></trkpt><trkpt lat="40.90448245276493" lon="8.769238101475604"><ele>158.0</ele><time>2026-05-01T08:59:15.857Z</time></trkpt><trkpt lat="40.90443497415273" lon="8.769131043968482"><ele>157.6</ele><time>2026-05-01T08:59:16.857Z</time></trkpt><trkpt lat="40.90437383921801" lon="8.769034432113468"><ele>157.20000000000002</ele><time>2026-05-01T08:59:17.857Z</time></trkpt><trkpt lat="40.90432962220711" lon="8.768920838430638"><ele>156.8</ele><time>2026-05-01T08:59:18.857Z</time></trkpt><trkpt lat="40.904283364021275" lon="8.768797321505165"><ele>156.4</ele><time>2026-05-01T08:59:19.857Z</time></trkpt><trkpt lat="40.904236215174954" lon="8.768672919148363"><ele>156.0</ele><time>2026-05-01T08:59:20.857Z</time></trkpt><trkpt lat="40.904189883375075" lon="8.76855012515764"><ele>159.8</ele><time>2026-05-01T08:59:21.857Z</time></trkpt><trkpt lat="40.90414200603132" lon="8.768416903921697"><ele>163.6</ele><time>2026-05-01T08:59:22.857Z</time></trkpt><trkpt lat="40.90410188151163" lon="8.76828691638663"><ele>167.4</ele><time>2026-05-01T08:59:23.857Z</time></trkpt><trkpt lat="40.90406387634781" lon="8.76816701053051"><ele>171.2</ele><time>2026-05-01T08:59:24.857Z</time></trkpt><trkpt lat="40.90401941875773" lon="8.768051306962851"><ele>175.0</ele><time>2026-05-01T08:59:25.857Z</time></trkpt><trkpt lat="40.903986123452725" lon="8.767918545143582"><ele>175.0</ele><time>2026-05-01T08:59:26.857Z</time></trkpt><trkpt lat="40.9039367033882" lon="8.767804828403891"><ele>175.0</ele><time>2026-05-01T08:59:27.857Z</time></trkpt><trkpt lat="40.90388893674203" lon="8.767698669987793"><ele>175.0</ele><time>2026-05-01T08:59:28.857Z</time></trkpt><trkpt lat="40.90383721023943" lon="8.767588773492422"><ele>175.0</ele><time>2026-05-01T08:59:29.857Z</time></trkpt><trkpt lat="40.90377341322467" lon="8.767484363137376"><ele>175.0</ele><time>2026-05-01T08:59:30.857Z</time></trkpt><trkpt lat="40.90372070735633" lon="8.76737379902542"><ele>179.0</ele><time>2026-05-01T08:59:31.857Z</time></trkpt><trkpt lat="40.903691468034395" lon="8.767286145394097"><ele>183.0</ele><time>2026-05-01T08:59:32.857Z</time></trkpt><trkpt lat="40.90366053531467" lon="8.767206262210498"><ele>187.0</ele><time>2026-05-01T08:59:34.857Z</time></trkpt><trkpt lat="40.90374939414497" lon="8.767180563090271"><ele>191.0</ele><time>2026-05-01T08:59:38.857Z</time></trkpt><trkpt lat="40.90385925397239" lon="8.767253759221232"><ele>195.0</ele><time>2026-05-01T08:59:40.857Z</time></trkpt><trkpt lat="40.90394671197919" lon="8.767306702865305"><ele>195.0</ele><time>2026-05-01T08:59:41.857Z</time></trkpt><trkpt lat="40.90403539187324" lon="8.767343765491788"><ele>195.0</ele><time>2026-05-01T08:59:42.857Z</time></trkpt><trkpt lat="40.90413501232337" lon="8.767403339240358"><ele>195.0</ele><time>2026-05-01T08:59:43.857Z</time></trkpt><trkpt lat="40.904232566774915" lon="8.76748786671934"><ele>195.0</ele><time>2026-05-01T08:59:44.857Z</time></trkpt><trkpt lat="40.90432575680205" lon="8.767552314863135"><ele>195.0</ele><time>2026-05-01T08:59:45.857Z</time></trkpt><trkpt lat="40.904379809292045" lon="8.767597287945927"><ele>201.33333333333334</ele><time>2026-05-01T08:59:46.857Z</time></trkpt><trkpt lat="40.9044520888455" lon="8.767576367572593"><ele>207.66666666666669</ele><time>2026-05-01T08:59:48.857Z</time></trkpt><trkpt lat="40.90440642098786" lon="8.767480307297232"><ele>214.0</ele><time>2026-05-01T08:59:49.857Z</time></trkpt><trkpt lat="40.90439106555701" lon="8.767386369123708"><ele>220.33333333333334</ele><time>2026-05-01T08:59:51.857Z</time></trkpt><trkpt lat="40.90435855453797" lon="8.767301273601655"><ele>226.66666666666669</ele><time>2026-05-01T08:59:52.857Z</time></trkpt><trkpt lat="40.9042942348605" lon="8.767196968463695"><ele>233.0</ele><time>2026-05-01T08:59:53.857Z</time></trkpt><trkpt lat="40.904261943068306" lon="8.767105564270206"><ele>230.50000000000003</ele><time>2026-05-01T08:59:54.857Z</time></trkpt><trkpt lat="40.90422415528182" lon="8.767011620515865"><ele>228.0</ele><time>2026-05-01T08:59:55.857Z</time></trkpt><trkpt lat="40.90418047334305" lon="8.766900431485947"><ele>225.5</ele><time>2026-05-01T08:59:56.857Z</time></trkpt><trkpt lat="40.90412807502714" lon="8.766807317261009"><ele>223.0</ele><time>2026-05-01T08:59:57.857Z</time></trkpt><trkpt lat="40.90407070469615" lon="8.766712396038768"><ele>220.50000000000003</ele><time>2026-05-01T08:59:58.857Z</time></trkpt><trkpt lat="40.90401091328619" lon="8.76663742488414"><ele>218.0</ele><time>2026-05-01T08:59:59.857Z</time></trkpt><trkpt lat="40.903944145142" lon="8.766609065252313"><ele>218.0</ele><time>2026-05-01T09:00:00.857Z</time></trkpt><trkpt lat="40.90383045980748" lon="8.766567783821925"><ele>218.0</ele><time>2026-05-01T09:00:01.857Z</time></trkpt><trkpt lat="40.90373188240032" lon="8.766524030413553"><ele>218.0</ele><time>2026-05-01T09:00:02.857Z</time></trkpt><trkpt lat="40.903640933849964" lon="8.766476437287634"><ele>218.0</ele><time>2026-05-01T09:00:03.857Z</time></trkpt><trkpt lat="40.90357535345928" lon="8.766434364641034"><ele>218.0</ele><time>2026-05-01T09:00:04.857Z</time></trkpt><trkpt lat="40.903478349143654" lon="8.766333903615758"><ele>218.00000000000003</ele><time>2026-05-01T09:00:06.857Z</time></trkpt><trkpt lat="40.90344174189684" lon="8.766220479049933"><ele>218.0</ele><time>2026-05-01T09:00:08.857Z</time></trkpt><trkpt lat="40.90347560288903" lon="8.766073507622323"><ele>218.0</ele><time>2026-05-01T09:00:10.856Z</time></trkpt><trkpt lat="40.90350778972366" lon="8.765984470872274"><ele>218.0</ele><time>2026-05-01T09:00:11.856Z</time></trkpt><trkpt lat="40.90353729547093" lon="8.765882182799661"><ele>218.00000000000003</ele><time>2026-05-01T09:00:12.856Z</time></trkpt><trkpt lat="40.9035492778994" lon="8.76578192035741"><ele>218.0</ele><time>2026-05-01T09:00:13.856Z</time></trkpt><trkpt lat="40.90353011087875" lon="8.765609808246003"><ele>218.4</ele><time>2026-05-01T09:00:15.856Z</time></trkpt><trkpt lat="40.90350105932937" lon="8.765485921111623"><ele>218.8</ele><time>2026-05-01T09:00:16.856Z</time></trkpt><trkpt lat="40.90345645714129" lon="8.765389639155764"><ele>219.2</ele><time>2026-05-01T09:00:17.856Z</time></trkpt><trkpt lat="40.903414124048616" lon="8.765273110983232"><ele>219.6</ele><time>2026-05-01T09:00:18.856Z</time></trkpt><trkpt lat="40.90337202093796" lon="8.765141377086584"><ele>220.0</ele><time>2026-05-01T09:00:19.856Z</time></trkpt><trkpt lat="40.90332853819673" lon="8.765025625592022"><ele>220.0</ele><time>2026-05-01T09:00:20.854Z</time></trkpt><trkpt lat="40.90330559819985" lon="8.764912871605155"><ele>220.0</ele><time>2026-05-01T09:00:21.854Z</time></trkpt><trkpt lat="40.90328351689379" lon="8.764790601888379"><ele>220.0</ele><time>2026-05-01T09:00:22.854Z</time></trkpt><trkpt lat="40.90325218147896" lon="8.764670332223035"><ele>220.0</ele><time>2026-05-01T09:00:23.854Z</time></trkpt><trkpt lat="40.903229370575964" lon="8.764555675449454"><ele>220.0</ele><time>2026-05-01T09:00:24.854Z</time></trkpt><trkpt lat="40.90322337061436" lon="8.764445732882407"><ele>221.2</ele><time>2026-05-01T09:00:25.854Z</time></trkpt><trkpt lat="40.90322644082133" lon="8.764357840233167"><ele>222.4</ele><time>2026-05-01T09:00:26.854Z</time></trkpt><trkpt lat="40.903246143517435" lon="8.764225395257101"><ele>223.60000000000002</ele><time>2026-05-01T09:00:28.854Z</time></trkpt><trkpt lat="40.90330502693957" lon="8.764098533483123"><ele>224.8</ele><time>2026-05-01T09:00:30.854Z</time></trkpt><trkpt lat="40.90334779010905" lon="8.76400433295586"><ele>226.0</ele><time>2026-05-01T09:00:31.854Z</time></trkpt><trkpt lat="40.90339600082289" lon="8.763891994776673"><ele>229.20000000000002</ele><time>2026-05-01T09:00:32.854Z</time></trkpt><trkpt lat="40.90344597168084" lon="8.763768328491997"><ele>232.40000000000003</ele><time>2026-05-01T09:00:33.854Z</time></trkpt><trkpt lat="40.903493704491545" lon="8.763641597945643"><ele>235.6</ele><time>2026-05-01T09:00:34.854Z</time></trkpt><trkpt lat="40.90353828428281" lon="8.763524490705281"><ele>238.8</ele><time>2026-05-01T09:00:35.854Z</time></trkpt><trkpt lat="40.90358749124155" lon="8.763413971226317"><ele>242.0</ele><time>2026-05-01T09:00:36.854Z</time></trkpt><trkpt lat="40.90363907678548" lon="8.763298982545466"><ele>242.0</ele><time>2026-05-01T09:00:37.854Z</time></trkpt><trkpt lat="40.90369555401042" lon="8.76317869535761"><ele>242.0</ele><time>2026-05-01T09:00:38.854Z</time></trkpt><trkpt lat="40.90375568618923" lon="8.763043635109184"><ele>242.0</ele><time>2026-05-01T09:00:39.854Z</time></trkpt><trkpt lat="40.90380591334231" lon="8.762920602861943"><ele>242.0</ele><time>2026-05-01T09:00:40.854Z</time></trkpt><trkpt lat="40.903839759435634" lon="8.762824668926985"><ele>242.0</ele><time>2026-05-01T09:00:41.854Z</time></trkpt><trkpt lat="40.90387922559342" lon="8.762726097490718"><ele>241.2</ele><time>2026-05-01T09:00:42.854Z</time></trkpt><trkpt lat="40.903920211717335" lon="8.762633157042622"><ele>240.39999999999998</ele><time>2026-05-01T09:00:43.854Z</time></trkpt><trkpt lat="40.90396861550834" lon="8.762525155336288"><ele>239.60000000000002</ele><time>2026-05-01T09:00:44.854Z</time></trkpt><trkpt lat="40.90402167706094" lon="8.762410493531862"><ele>238.8</ele><time>2026-05-01T09:00:45.854Z</time></trkpt><trkpt lat="40.90406401372218" lon="8.762296697764453"><ele>238.0</ele><time>2026-05-01T09:00:46.854Z</time></trkpt><trkpt lat="40.9041094755488" lon="8.762186161383898"><ele>237.99999999999997</ele><time>2026-05-01T09:00:47.854Z</time></trkpt><trkpt lat="40.9041600892524" lon="8.762069822863124"><ele>238.0</ele><time>2026-05-01T09:00:48.854Z</time></trkpt><trkpt lat="40.90420457894707" lon="8.761967217245083"><ele>238.0</ele><time>2026-05-01T09:00:49.854Z</time></trkpt><trkpt lat="40.904249422075395" lon="8.761876638828547"><ele>238.0</ele><time>2026-05-01T09:00:50.854Z</time></trkpt><trkpt lat="40.90430324182865" lon="8.76179149172974"><ele>237.99999999999997</ele><time>2026-05-01T09:00:51.854Z</time></trkpt><trkpt lat="40.904366146432295" lon="8.761721091827196"><ele>238.0</ele><time>2026-05-01T09:00:52.854Z</time></trkpt><trkpt lat="40.904441894804215" lon="8.761658434203682"><ele>238.25</ele><time>2026-05-01T09:00:53.854Z</time></trkpt><trkpt lat="40.90452744232059" lon="8.761593966266112"><ele>238.5</ele><time>2026-05-01T09:00:54.854Z</time></trkpt><trkpt lat="40.90462325013759" lon="8.761527809311149"><ele>238.75</ele><time>2026-05-01T09:00:55.854Z</time></trkpt><trkpt lat="40.90472815729013" lon="8.761456611391052"><ele>239.0</ele><time>2026-05-01T09:00:56.854Z</time></trkpt><trkpt lat="40.90483988687035" lon="8.761382083573112"><ele>239.0</ele><time>2026-05-01T09:00:57.854Z</time></trkpt><trkpt lat="40.90494188854496" lon="8.761309238798612"><ele>239.0</ele><time>2026-05-01T09:00:58.854Z</time></trkpt><trkpt lat="40.905044709472214" lon="8.76123262019405"><ele>239.0</ele><time>2026-05-01T09:00:59.854Z</time></trkpt><trkpt lat="40.90514487271725" lon="8.761135691620536"><ele>239.0</ele><time>2026-05-01T09:01:00.854Z</time></trkpt><trkpt lat="40.90524784318159" lon="8.76102962633964"><ele>241.0</ele><time>2026-05-01T09:01:01.854Z</time></trkpt><trkpt lat="40.90533683777883" lon="8.760933140774018"><ele>242.99999999999997</ele><time>2026-05-01T09:01:02.854Z</time></trkpt><trkpt lat="40.90541506179897" lon="8.760828556538607"><ele>244.99999999999997</ele><time>2026-05-01T09:01:03.854Z</time></trkpt><trkpt lat="40.905484672837524" lon="8.760719807349103"><ele>247.0</ele><time>2026-05-01T09:01:04.854Z</time></trkpt><trkpt lat="40.9055539413974" lon="8.760599431631828"><ele>249.0</ele><time>2026-05-01T09:01:05.854Z</time></trkpt><trkpt lat="40.90563502825579" lon="8.760486414557398"><ele>249.0</ele><time>2026-05-01T09:01:06.854Z</time></trkpt><trkpt lat="40.90569482095105" lon="8.760323707199703"><ele>249.0</ele><time>2026-05-01T09:01:07.854Z</time></trkpt><trkpt lat="40.90577299994671" lon="8.760165387253277"><ele>249.0</ele><time>2026-05-01T09:01:08.854Z</time></trkpt><trkpt lat="40.90583700195944" lon="8.760032617945843"><ele>249.0</ele><time>2026-05-01T09:01:09.854Z</time></trkpt><trkpt lat="40.90588285845567" lon="8.75991540059364"><ele>248.33333333333334</ele><time>2026-05-01T09:01:10.854Z</time></trkpt><trkpt lat="40.905926417234255" lon="8.759830087791"><ele>247.66666666666669</ele><time>2026-05-01T09:01:11.854Z</time></trkpt><trkpt lat="40.90594684477281" lon="8.759750501288929"><ele>247.0</ele><time>2026-05-01T09:01:12.854Z</time></trkpt><trkpt lat="40.9059461950062" lon="8.759661958890742"><ele>246.33333333333334</ele><time>2026-05-01T09:01:13.854Z</time></trkpt><trkpt lat="40.905939611213036" lon="8.759566462978222"><ele>245.66666666666669</ele><time>2026-05-01T09:01:14.854Z</time></trkpt><trkpt lat="40.905899491223295" lon="8.759450363432192"><ele>245.0</ele><time>2026-05-01T09:01:15.854Z</time></trkpt><trkpt lat="40.905841709679855" lon="8.759345870127476"><ele>245.0</ele><time>2026-05-01T09:01:16.854Z</time></trkpt><trkpt lat="40.90576321306776" lon="8.75926350283183"><ele>245.0</ele><time>2026-05-01T09:01:17.854Z</time></trkpt><trkpt lat="40.905704229915465" lon="8.759155012008412"><ele>245.0</ele><time>2026-05-01T09:01:18.854Z</time></trkpt><trkpt lat="40.905642018736586" lon="8.759073855036506"><ele>245.0</ele><time>2026-05-01T09:01:19.854Z</time></trkpt><trkpt lat="40.90557358035952" lon="8.758985985945115"><ele>245.0</ele><time>2026-05-01T09:01:20.854Z</time></trkpt><trkpt lat="40.905495686274286" lon="8.758908378062722"><ele>245.0</ele><time>2026-05-01T09:01:21.854Z</time></trkpt><trkpt lat="40.905422955233085" lon="8.758808720293947"><ele>245.0</ele><time>2026-05-01T09:01:22.854Z</time></trkpt><trkpt lat="40.90534919361135" lon="8.75870856559639"><ele>245.0</ele><time>2026-05-01T09:01:23.854Z</time></trkpt><trkpt lat="40.90527825369383" lon="8.758605423168307"><ele>245.0</ele><time>2026-05-01T09:01:24.854Z</time></trkpt><trkpt lat="40.90520465128525" lon="8.758497222428817"><ele>245.0</ele><time>2026-05-01T09:01:25.853Z</time></trkpt><trkpt lat="40.905134299386404" lon="8.75838990555989"><ele>245.4</ele><time>2026-05-01T09:01:26.853Z</time></trkpt><trkpt lat="40.905060692898694" lon="8.758284845848781"><ele>245.8</ele><time>2026-05-01T09:01:27.853Z</time></trkpt><trkpt lat="40.904993585238756" lon="8.758200668697313"><ele>246.2</ele><time>2026-05-01T09:01:28.853Z</time></trkpt><trkpt lat="40.90495227626479" lon="8.758129671713354"><ele>246.6</ele><time>2026-05-01T09:01:29.853Z</time></trkpt><trkpt lat="40.904909418940534" lon="8.758063552721957"><ele>247.0</ele><time>2026-05-01T09:01:30.853Z</time></trkpt><trkpt lat="40.90500661956954" lon="8.757954142322884"><ele>250.0</ele><time>2026-05-01T09:01:37.853Z</time></trkpt><trkpt lat="40.90512911277401" lon="8.75800593312439"><ele>253.0</ele><time>2026-05-01T09:01:41.853Z</time></trkpt><trkpt lat="40.905215810888734" lon="8.758031295213986"><ele>256.0</ele><time>2026-05-01T09:01:42.853Z</time></trkpt><trkpt lat="40.90531231916406" lon="8.75806224975437"><ele>259.0</ele><time>2026-05-01T09:01:43.853Z</time></trkpt><trkpt lat="40.90541412109471" lon="8.758123619312872"><ele>262.0</ele><time>2026-05-01T09:01:44.853Z</time></trkpt><trkpt lat="40.905530626640264" lon="8.758157382437274"><ele>262.0</ele><time>2026-05-01T09:01:45.853Z</time></trkpt><trkpt lat="40.90565012424438" lon="8.758217866898377"><ele>262.0</ele><time>2026-05-01T09:01:46.853Z</time></trkpt><trkpt lat="40.905776887876634" lon="8.75828065329686"><ele>262.0</ele><time>2026-05-01T09:01:47.853Z</time></trkpt><trkpt lat="40.905912061818746" lon="8.75833684111207"><ele>262.0</ele><time>2026-05-01T09:01:48.853Z</time></trkpt><trkpt lat="40.90604827973091" lon="8.758367932106179"><ele>265.25</ele><time>2026-05-01T09:01:49.853Z</time></trkpt><trkpt lat="40.90619014535217" lon="8.758393416018896"><ele>268.5</ele><time>2026-05-01T09:01:50.853Z</time></trkpt><trkpt lat="40.90632959951479" lon="8.758417694835108"><ele>271.75</ele><time>2026-05-01T09:01:51.853Z</time></trkpt><trkpt lat="40.906466817854884" lon="8.758434856103252"><ele>275.0</ele><time>2026-05-01T09:01:52.853Z</time></trkpt><trkpt lat="40.906587791917595" lon="8.758456239534713"><ele>275.0</ele><time>2026-05-01T09:01:53.853Z</time></trkpt><trkpt lat="40.9066980985248" lon="8.758486749486048"><ele>275.0</ele><time>2026-05-01T09:01:54.853Z</time></trkpt><trkpt lat="40.906812229168516" lon="8.758498495146728"><ele>275.0</ele><time>2026-05-01T09:01:55.853Z</time></trkpt><trkpt lat="40.90691292193553" lon="8.75853747809824"><ele>275.0</ele><time>2026-05-01T09:01:56.853Z</time></trkpt><trkpt lat="40.90699880946841" lon="8.758577788044402"><ele>275.0</ele><time>2026-05-01T09:01:57.853Z</time></trkpt><trkpt lat="40.90707347508804" lon="8.758629118890738"><ele>276.8</ele><time>2026-05-01T09:01:58.853Z</time></trkpt><trkpt lat="40.9071490761492" lon="8.758688679729289"><ele>278.6</ele><time>2026-05-01T09:01:59.853Z</time></trkpt><trkpt lat="40.90722108221254" lon="8.758763839499393"><ele>280.4</ele><time>2026-05-01T09:02:00.853Z</time></trkpt><trkpt lat="40.90729532873578" lon="8.758849480195668"><ele>282.2</ele><time>2026-05-01T09:02:01.853Z</time></trkpt><trkpt lat="40.907391006990665" lon="8.758930472500063"><ele>284.0</ele><time>2026-05-01T09:02:02.853Z</time></trkpt><trkpt lat="40.90746719463949" lon="8.759019831263336"><ele>284.0</ele><time>2026-05-01T09:02:03.853Z</time></trkpt><trkpt lat="40.90753472148505" lon="8.759111751252911"><ele>284.0</ele><time>2026-05-01T09:02:04.853Z</time></trkpt><trkpt lat="40.907592747653645" lon="8.75919265072639"><ele>284.0</ele><time>2026-05-01T09:02:05.853Z</time></trkpt><trkpt lat="40.90761729889822" lon="8.759279189578052"><ele>284.0</ele><time>2026-05-01T09:02:06.853Z</time></trkpt><trkpt lat="40.90765612291567" lon="8.7593755282072"><ele>284.0</ele><time>2026-05-01T09:02:08.853Z</time></trkpt><trkpt lat="40.907704383543575" lon="8.759459510932706"><ele>284.0</ele><time>2026-05-01T09:02:11.853Z</time></trkpt><trkpt lat="40.90773647354045" lon="8.759555049593777"><ele>284.83333333333337</ele><time>2026-05-01T09:02:13.853Z</time></trkpt><trkpt lat="40.90776811653761" lon="8.759662243385076"><ele>285.6666666666667</ele><time>2026-05-01T09:02:15.853Z</time></trkpt><trkpt lat="40.907817675324196" lon="8.759746592200111"><ele>286.5</ele><time>2026-05-01T09:02:17.853Z</time></trkpt><trkpt lat="40.9078826453592" lon="8.759751457659945"><ele>287.3333333333333</ele><time>2026-05-01T09:02:19.853Z</time></trkpt><trkpt lat="40.907971063278666" lon="8.759685940425895"><ele>288.16666666666663</ele><time>2026-05-01T09:02:21.853Z</time></trkpt><trkpt lat="40.908019848651385" lon="8.759568672479002"><ele>289.0</ele><time>2026-05-01T09:02:23.853Z</time></trkpt><trkpt lat="40.908064211800514" lon="8.759495001447947"><ele>289.0</ele><time>2026-05-01T09:02:31.85Z</time></trkpt><trkpt lat="40.90808017022342" lon="8.759373402181176"><ele>289.0</ele><time>2026-05-01T09:02:33.85Z</time></trkpt><trkpt lat="40.90811297221542" lon="8.759228153282711"><ele>289.0</ele><time>2026-05-01T09:02:35.851Z</time></trkpt><trkpt lat="40.90813039022273" lon="8.759143003194431"><ele>289.0</ele><time>2026-05-01T09:02:36.851Z</time></trkpt><trkpt lat="40.9081384451719" lon="8.759045344966392"><ele>289.0</ele><time>2026-05-01T09:02:37.851Z</time></trkpt><trkpt lat="40.908125430800034" lon="8.758943989655396"><ele>289.0</ele><time>2026-05-01T09:02:38.85Z</time></trkpt><trkpt lat="40.90813645831509" lon="8.758830635304687"><ele>289.2</ele><time>2026-05-01T09:02:39.85Z</time></trkpt><trkpt lat="40.90812035694003" lon="8.758693483544377"><ele>289.4</ele><time>2026-05-01T09:02:40.85Z</time></trkpt><trkpt lat="40.90809534530989" lon="8.75858485980336"><ele>289.6</ele><time>2026-05-01T09:02:41.85Z</time></trkpt><trkpt lat="40.90806534699083" lon="8.758478070441116"><ele>289.8</ele><time>2026-05-01T09:02:42.85Z</time></trkpt><trkpt lat="40.90801151665062" lon="8.758367007758588"><ele>290.0</ele><time>2026-05-01T09:02:43.85Z</time></trkpt><trkpt lat="40.907951564654084" lon="8.75826149888313"><ele>290.8</ele><time>2026-05-01T09:02:44.85Z</time></trkpt><trkpt lat="40.90788696386743" lon="8.758170151509141"><ele>291.6</ele><time>2026-05-01T09:02:45.85Z</time></trkpt><trkpt lat="40.90781844867799" lon="8.758045570517325"><ele>292.4</ele><time>2026-05-01T09:02:46.85Z</time></trkpt><trkpt lat="40.9077508846803" lon="8.757921871958965"><ele>293.2</ele><time>2026-05-01T09:02:47.85Z</time></trkpt><trkpt lat="40.907682948648834" lon="8.757821952758293"><ele>294.0</ele><time>2026-05-01T09:02:48.85Z</time></trkpt><trkpt lat="40.907623240807325" lon="8.75773395791131"><ele>295.2</ele><time>2026-05-01T09:02:49.85Z</time></trkpt><trkpt lat="40.907572795657366" lon="8.757631295850773"><ele>296.4</ele><time>2026-05-01T09:02:50.85Z</time></trkpt><trkpt lat="40.907511744615164" lon="8.757554706988627"><ele>297.6</ele><time>2026-05-01T09:02:51.85Z</time></trkpt><trkpt lat="40.90743839917864" lon="8.757477879149178"><ele>298.8</ele><time>2026-05-01T09:02:52.849Z</time></trkpt><trkpt lat="40.907345977659" lon="8.75740806746133"><ele>300.0</ele><time>2026-05-01T09:02:53.849Z</time></trkpt><trkpt lat="40.907249179038864" lon="8.757349037021516"><ele>300.0</ele><time>2026-05-01T09:02:54.849Z</time></trkpt><trkpt lat="40.90715964382441" lon="8.757262469450504"><ele>300.0</ele><time>2026-05-01T09:02:55.849Z</time></trkpt><trkpt lat="40.90706127745756" lon="8.757173434901318"><ele>300.0</ele><time>2026-05-01T09:02:56.849Z</time></trkpt><trkpt lat="40.90696855887991" lon="8.75708921182676"><ele>300.0</ele><time>2026-05-01T09:02:57.849Z</time></trkpt><trkpt lat="40.90687672276437" lon="8.757017913879837"><ele>300.0</ele><time>2026-05-01T09:02:58.849Z</time></trkpt><trkpt lat="40.90680987502349" lon="8.756959100059957"><ele>300.0</ele><time>2026-05-01T09:02:59.849Z</time></trkpt><trkpt lat="40.90675726815375" lon="8.75689604778902"><ele>300.0</ele><time>2026-05-01T09:03:00.849Z</time></trkpt><trkpt lat="40.906709965451206" lon="8.756799604787227"><ele>300.0</ele><time>2026-05-01T09:03:02.849Z</time></trkpt><trkpt lat="40.906654773079026" lon="8.75674884283686"><ele>300.0</ele><time>2026-05-01T09:03:06.849Z</time></trkpt><trkpt lat="40.90679412412486" lon="8.756571894754384"><ele>300.0</ele><time>2026-05-01T09:03:08.849Z</time></trkpt><trkpt lat="40.906842473664064" lon="8.7565178373997"><ele>299.4</ele><time>2026-05-01T09:03:09.849Z</time></trkpt><trkpt lat="40.90688758574514" lon="8.756437797832875"><ele>298.8</ele><time>2026-05-01T09:03:10.849Z</time></trkpt><trkpt lat="40.906919985090596" lon="8.756354001016813"><ele>298.2</ele><time>2026-05-01T09:03:11.849Z</time></trkpt><trkpt lat="40.90696089145834" lon="8.75619983654547"><ele>297.6</ele><time>2026-05-01T09:03:13.849Z</time></trkpt><trkpt lat="40.90699239617617" lon="8.756054729067161"><ele>297.0</ele><time>2026-05-01T09:03:15.849Z</time></trkpt><trkpt lat="40.90700942533691" lon="8.755919455997281"><ele>297.0</ele><time>2026-05-01T09:03:17.849Z</time></trkpt><trkpt lat="40.90702921726565" lon="8.755787220997437"><ele>297.0</ele><time>2026-05-01T09:03:19.849Z</time></trkpt><trkpt lat="40.90702937993292" lon="8.755669246089175"><ele>297.0</ele><time>2026-05-01T09:03:21.849Z</time></trkpt><trkpt lat="40.907090967100146" lon="8.755594964089923"><ele>297.0</ele><time>2026-05-01T09:03:44.849Z</time></trkpt><trkpt lat="40.90709985037688" lon="8.755487940527738"><ele>297.0</ele><time>2026-05-01T09:03:47.849Z</time></trkpt><trkpt lat="40.90710462779156" lon="8.755349083575029"><ele>295.4</ele><time>2026-05-01T09:03:49.849Z</time></trkpt><trkpt lat="40.90711625538718" lon="8.755164661100677"><ele>293.79999999999995</ele><time>2026-05-01T09:03:51.849Z</time></trkpt><trkpt lat="40.90711184240418" lon="8.755056005538878"><ele>292.2</ele><time>2026-05-01T09:03:52.849Z</time></trkpt><trkpt lat="40.90710889231876" lon="8.754960168861974"><ele>290.59999999999997</ele><time>2026-05-01T09:03:53.849Z</time></trkpt><trkpt lat="40.907100090995776" lon="8.754875293948198"><ele>289.0</ele><time>2026-05-01T09:03:54.849Z</time></trkpt><trkpt lat="40.90710261384881" lon="8.754710616571266"><ele>289.0</ele><time>2026-05-01T09:03:56.849Z</time></trkpt><trkpt lat="40.90710456399226" lon="8.75461173820164"><ele>289.0</ele><time>2026-05-01T09:03:57.849Z</time></trkpt><trkpt lat="40.90710820571661" lon="8.754522587178963"><ele>289.0</ele><time>2026-05-01T09:03:58.849Z</time></trkpt><trkpt lat="40.90710607203233" lon="8.754434561159945"><ele>289.0</ele><time>2026-05-01T09:03:59.849Z</time></trkpt><trkpt lat="40.907115505872014" lon="8.754285797339246"><ele>289.0</ele><time>2026-05-01T09:04:01.849Z</time></trkpt><trkpt lat="40.90716381783556" lon="8.75414903113802"><ele>289.0</ele><time>2026-05-01T09:05:00.846Z</time></trkpt><trkpt lat="40.90718426478954" lon="8.754028378224595"><ele>287.8333333333333</ele><time>2026-05-01T09:06:49.843Z</time></trkpt><trkpt lat="40.907178199428486" lon="8.753939175002861"><ele>286.66666666666663</ele><time>2026-05-01T09:06:51.844Z</time></trkpt><trkpt lat="40.90719705424806" lon="8.753806217015736"><ele>285.5</ele><time>2026-05-01T09:06:53.844Z</time></trkpt><trkpt lat="40.90720341241329" lon="8.753687800982696"><ele>284.3333333333333</ele><time>2026-05-01T09:06:55.844Z</time></trkpt><trkpt lat="40.90720365872617" lon="8.753600208890566"><ele>283.1666666666667</ele><time>2026-05-01T09:06:57.844Z</time></trkpt><trkpt lat="40.90720153252477" lon="8.753490916556954"><ele>282.0</ele><time>2026-05-01T09:06:59.844Z</time></trkpt><trkpt lat="40.90719985827487" lon="8.753371521942926"><ele>280.1666666666667</ele><time>2026-05-01T09:07:01.844Z</time></trkpt><trkpt lat="40.90720289456592" lon="8.753274203820137"><ele>278.3333333333333</ele><time>2026-05-01T09:07:02.844Z</time></trkpt><trkpt lat="40.90719819499161" lon="8.753186387551834"><ele>276.5</ele><time>2026-05-01T09:07:03.843Z</time></trkpt><trkpt lat="40.90720152723656" lon="8.753092044016276"><ele>274.66666666666663</ele><time>2026-05-01T09:07:04.843Z</time></trkpt><trkpt lat="40.90720906145668" lon="8.752982050721197"><ele>272.8333333333333</ele><time>2026-05-01T09:07:05.843Z</time></trkpt><trkpt lat="40.907216024301626" lon="8.752887504686457"><ele>271.0</ele><time>2026-05-01T09:07:06.843Z</time></trkpt><trkpt lat="40.90721327555257" lon="8.752760611606721"><ele>269.5</ele><time>2026-05-01T09:07:08.843Z</time></trkpt><trkpt lat="40.907208189495364" lon="8.752623965423643"><ele>268.0</ele><time>2026-05-01T09:07:10.843Z</time></trkpt><trkpt lat="40.90720784337386" lon="8.752527056411893"><ele>266.5</ele><time>2026-05-01T09:07:12.843Z</time></trkpt><trkpt lat="40.90720933965076" lon="8.75239999374771"><ele>265.0</ele><time>2026-05-01T09:07:14.843Z</time></trkpt><trkpt lat="40.907212155533244" lon="8.752306754509116"><ele>263.5</ele><time>2026-05-01T09:07:16.843Z</time></trkpt><trkpt lat="40.90722449518032" lon="8.75219753006818"><ele>262.0</ele><time>2026-05-01T09:07:18.843Z</time></trkpt><trkpt lat="40.90723122751515" lon="8.752066179887267"><ele>262.0</ele><time>2026-05-01T09:07:20.843Z</time></trkpt><trkpt lat="40.907248595318535" lon="8.751908801188069"><ele>262.0</ele><time>2026-05-01T09:07:22.843Z</time></trkpt><trkpt lat="40.90725620916297" lon="8.751812533630897"><ele>262.0</ele><time>2026-05-01T09:07:24.843Z</time></trkpt><trkpt lat="40.90730347784533" lon="8.751699315780959"><ele>262.0</ele><time>2026-05-01T09:07:27.843Z</time></trkpt><trkpt lat="40.90730999927888" lon="8.751616411694835"><ele>262.0</ele><time>2026-05-01T09:07:29.843Z</time></trkpt><trkpt lat="40.90728325985158" lon="8.751539564028619"><ele>262.0</ele><time>2026-05-01T09:07:31.843Z</time></trkpt><trkpt lat="40.907231701889295" lon="8.751459656928951"><ele>259.4</ele><time>2026-05-01T09:07:33.843Z</time></trkpt><trkpt lat="40.9071569259013" lon="8.751430523713003"><ele>256.79999999999995</ele><time>2026-05-01T09:07:35.843Z</time></trkpt><trkpt lat="40.907090396695516" lon="8.751492502258285"><ele>254.2</ele><time>2026-05-01T09:07:38.843Z</time></trkpt><trkpt lat="40.90704477349239" lon="8.751567147820625"><ele>251.6</ele><time>2026-05-01T09:07:41.843Z</time></trkpt><trkpt lat="40.906999809865724" lon="8.751702604736623"><ele>249.0</ele><time>2026-05-01T09:07:43.843Z</time></trkpt><trkpt lat="40.90694404224234" lon="8.751857407270942"><ele>251.16666666666666</ele><time>2026-05-01T09:07:45.843Z</time></trkpt><trkpt lat="40.90690679817725" lon="8.75193504555316"><ele>253.33333333333331</ele><time>2026-05-01T09:07:46.843Z</time></trkpt><trkpt lat="40.90686321018639" lon="8.75202234247629"><ele>255.5</ele><time>2026-05-01T09:07:47.843Z</time></trkpt><trkpt lat="40.90681713935299" lon="8.752107452637924"><ele>257.66666666666663</ele><time>2026-05-01T09:07:48.843Z</time></trkpt><trkpt lat="40.90677000779927" lon="8.752211879298489"><ele>259.8333333333333</ele><time>2026-05-01T09:07:49.843Z</time></trkpt><trkpt lat="40.90670770159269" lon="8.752324259507594"><ele>262.0</ele><time>2026-05-01T09:07:50.843Z</time></trkpt><trkpt lat="40.9066409381357" lon="8.752439806408804"><ele>262.66666666666663</ele><time>2026-05-01T09:07:51.843Z</time></trkpt><trkpt lat="40.90657599655488" lon="8.7525550154898"><ele>263.3333333333333</ele><time>2026-05-01T09:07:52.843Z</time></trkpt><trkpt lat="40.90652810557425" lon="8.752671037465134"><ele>264.0</ele><time>2026-05-01T09:07:53.843Z</time></trkpt><trkpt lat="40.90647362209326" lon="8.752755504823325"><ele>264.6666666666667</ele><time>2026-05-01T09:07:54.843Z</time></trkpt><trkpt lat="40.90643055111661" lon="8.752827395213687"><ele>265.33333333333337</ele><time>2026-05-01T09:07:55.843Z</time></trkpt><trkpt lat="40.90636856146422" lon="8.752866083720393"><ele>266.0</ele><time>2026-05-01T09:07:56.843Z</time></trkpt><trkpt lat="40.90629165032094" lon="8.752904249017957"><ele>268.1666666666667</ele><time>2026-05-01T09:07:57.843Z</time></trkpt><trkpt lat="40.906211608465696" lon="8.75292438009488"><ele>270.33333333333337</ele><time>2026-05-01T09:07:58.843Z</time></trkpt><trkpt lat="40.90613233564404" lon="8.752922859625338"><ele>272.5</ele><time>2026-05-01T09:07:59.843Z</time></trkpt><trkpt lat="40.90605374477093" lon="8.75289972903648"><ele>274.6666666666667</ele><time>2026-05-01T09:08:00.843Z</time></trkpt><trkpt lat="40.90598426080908" lon="8.752862525601087"><ele>276.8333333333333</ele><time>2026-05-01T09:08:01.843Z</time></trkpt><trkpt lat="40.905906444043396" lon="8.752804249273378"><ele>279.0</ele><time>2026-05-01T09:08:02.843Z</time></trkpt><trkpt lat="40.905835742160704" lon="8.75271984355696"><ele>277.0</ele><time>2026-05-01T09:08:03.843Z</time></trkpt><trkpt lat="40.905780606577096" lon="8.752641730105168"><ele>275.0</ele><time>2026-05-01T09:08:04.843Z</time></trkpt><trkpt lat="40.90572494454291" lon="8.752591157272164"><ele>273.0</ele><time>2026-05-01T09:08:05.843Z</time></trkpt><trkpt lat="40.9056155681888" lon="8.752531800338456"><ele>271.0</ele><time>2026-05-01T09:08:07.843Z</time></trkpt><trkpt lat="40.90554559679213" lon="8.752549427020218"><ele>269.0</ele><time>2026-05-01T09:08:08.843Z</time></trkpt><trkpt lat="40.90546241534088" lon="8.752551382996684"><ele>267.0</ele><time>2026-05-01T09:08:09.843Z</time></trkpt><trkpt lat="40.90537703067033" lon="8.752569920310867"><ele>267.0</ele><time>2026-05-01T09:08:10.843Z</time></trkpt><trkpt lat="40.90529579048975" lon="8.752584893758007"><ele>267.0</ele><time>2026-05-01T09:08:11.843Z</time></trkpt><trkpt lat="40.905216246998116" lon="8.752591745805283"><ele>267.0</ele><time>2026-05-01T09:08:12.843Z</time></trkpt><trkpt lat="40.90512063662769" lon="8.75258703018571"><ele>267.0</ele><time>2026-05-01T09:08:13.843Z</time></trkpt><trkpt lat="40.90502383957613" lon="8.752586286002378"><ele>267.0</ele><time>2026-05-01T09:08:14.843Z</time></trkpt><trkpt lat="40.904940717071916" lon="8.752586864158657"><ele>267.0</ele><time>2026-05-01T09:08:15.843Z</time></trkpt><trkpt lat="40.904847032388176" lon="8.752597713499597"><ele>268.0</ele><time>2026-05-01T09:08:16.843Z</time></trkpt><trkpt lat="40.90477250678774" lon="8.752618591692688"><ele>269.0</ele><time>2026-05-01T09:08:17.842Z</time></trkpt><trkpt lat="40.90467457608588" lon="8.752648118234617"><ele>270.0</ele><time>2026-05-01T09:08:18.842Z</time></trkpt><trkpt lat="40.90458029287308" lon="8.752673955920736"><ele>271.0</ele><time>2026-05-01T09:08:19.842Z</time></trkpt><trkpt lat="40.904492706717456" lon="8.75270458527583"><ele>272.0</ele><time>2026-05-01T09:08:20.842Z</time></trkpt><trkpt lat="40.90440672495799" lon="8.752758377048181"><ele>273.8</ele><time>2026-05-01T09:08:21.842Z</time></trkpt><trkpt lat="40.90433128664258" lon="8.752805161008254"><ele>275.6</ele><time>2026-05-01T09:08:22.842Z</time></trkpt><trkpt lat="40.90424498323812" lon="8.752854541447364"><ele>277.40000000000003</ele><time>2026-05-01T09:08:23.842Z</time></trkpt><trkpt lat="40.9041568299338" lon="8.752924581796323"><ele>279.2</ele><time>2026-05-01T09:08:24.842Z</time></trkpt><trkpt lat="40.90407071626484" lon="8.752992563281987"><ele>281.0</ele><time>2026-05-01T09:08:25.842Z</time></trkpt><trkpt lat="40.903993508612636" lon="8.753079897317878"><ele>281.0</ele><time>2026-05-01T09:08:26.842Z</time></trkpt><trkpt lat="40.903929127431454" lon="8.753169264226928"><ele>281.0</ele><time>2026-05-01T09:08:27.842Z</time></trkpt><trkpt lat="40.90385864781095" lon="8.753258337028601"><ele>281.0</ele><time>2026-05-01T09:08:28.842Z</time></trkpt><trkpt lat="40.90379082078006" lon="8.75335812282324"><ele>281.0</ele><time>2026-05-01T09:08:29.842Z</time></trkpt><trkpt lat="40.90369226853749" lon="8.753427071640944"><ele>281.0</ele><time>2026-05-01T09:08:30.842Z</time></trkpt><trkpt lat="40.90360329148029" lon="8.753503839159071"><ele>280.8</ele><time>2026-05-01T09:08:31.842Z</time></trkpt><trkpt lat="40.90351060600696" lon="8.753574175690554"><ele>280.6</ele><time>2026-05-01T09:08:32.842Z</time></trkpt><trkpt lat="40.903416734682196" lon="8.753614860670758"><ele>280.4</ele><time>2026-05-01T09:08:33.842Z</time></trkpt><trkpt lat="40.90333403572679" lon="8.75366754444887"><ele>280.2</ele><time>2026-05-01T09:08:34.842Z</time></trkpt><trkpt lat="40.90325265426669" lon="8.753718119169855"><ele>280.0</ele><time>2026-05-01T09:08:35.842Z</time></trkpt><trkpt lat="40.90317600226861" lon="8.753757134864053"><ele>280.0</ele><time>2026-05-01T09:08:36.842Z</time></trkpt><trkpt lat="40.90310738724983" lon="8.753781849910393"><ele>280.0</ele><time>2026-05-01T09:08:37.842Z</time></trkpt><trkpt lat="40.90302449081149" lon="8.753799567348132"><ele>280.0</ele><time>2026-05-01T09:08:39.842Z</time></trkpt><trkpt lat="40.90297757769469" lon="8.753687213672388"><ele>280.0</ele><time>2026-05-01T09:08:41.842Z</time></trkpt><trkpt lat="40.90293674264634" lon="8.753607146560917"><ele>280.0</ele><time>2026-05-01T09:08:42.842Z</time></trkpt><trkpt lat="40.90290646771979" lon="8.753505293987608"><ele>280.0</ele><time>2026-05-01T09:08:43.841Z</time></trkpt><trkpt lat="40.90288801690982" lon="8.753397444117676"><ele>278.8333333333333</ele><time>2026-05-01T09:08:44.841Z</time></trkpt><trkpt lat="40.90286289752666" lon="8.753300331766157"><ele>277.66666666666663</ele><time>2026-05-01T09:08:45.841Z</time></trkpt><trkpt lat="40.90281771789742" lon="8.753203197919511"><ele>276.5</ele><time>2026-05-01T09:08:46.841Z</time></trkpt><trkpt lat="40.90276622624845" lon="8.753133217502306"><ele>275.3333333333333</ele><time>2026-05-01T09:08:47.841Z</time></trkpt><trkpt lat="40.90269884485099" lon="8.753059998309812"><ele>274.1666666666667</ele><time>2026-05-01T09:08:48.841Z</time></trkpt><trkpt lat="40.9026256186475" lon="8.752993029458018"><ele>273.0</ele><time>2026-05-01T09:08:49.841Z</time></trkpt><trkpt lat="40.90254950709156" lon="8.752933200989492"><ele>273.0</ele><time>2026-05-01T09:08:50.841Z</time></trkpt><trkpt lat="40.90246714146221" lon="8.752885627556946"><ele>273.0</ele><time>2026-05-01T09:08:51.841Z</time></trkpt><trkpt lat="40.902380690632334" lon="8.752859585230707"><ele>273.0</ele><time>2026-05-01T09:08:52.841Z</time></trkpt><trkpt lat="40.90229079492711" lon="8.752858492905542"><ele>273.0</ele><time>2026-05-01T09:08:53.841Z</time></trkpt><trkpt lat="40.90220609152224" lon="8.752906295123788"><ele>273.0</ele><time>2026-05-01T09:08:54.841Z</time></trkpt><trkpt lat="40.90211175896955" lon="8.752929247430366"><ele>273.0</ele><time>2026-05-01T09:08:55.841Z</time></trkpt><trkpt lat="40.90201243626399" lon="8.752984972596472"><ele>273.0</ele><time>2026-05-01T09:08:56.841Z</time></trkpt><trkpt lat="40.901916975978146" lon="8.753040495094233"><ele>273.0</ele><time>2026-05-01T09:08:57.841Z</time></trkpt><trkpt lat="40.901836774686075" lon="8.75308332662724"><ele>273.0</ele><time>2026-05-01T09:08:58.841Z</time></trkpt><trkpt lat="40.901763152647646" lon="8.753093302535449"><ele>273.0</ele><time>2026-05-01T09:08:59.841Z</time></trkpt><trkpt lat="40.901663998359666" lon="8.753065941571709"><ele>271.8333333333333</ele><time>2026-05-01T09:09:00.841Z</time></trkpt><trkpt lat="40.90159699304535" lon="8.75299583947304"><ele>270.6666666666667</ele><time>2026-05-01T09:09:03.841Z</time></trkpt><trkpt lat="40.90153558256734" lon="8.752950536592078"><ele>269.5</ele><time>2026-05-01T09:09:04.841Z</time></trkpt><trkpt lat="40.90146830160129" lon="8.752825232102884"><ele>268.33333333333337</ele><time>2026-05-01T09:09:06.841Z</time></trkpt><trkpt lat="40.90144159954564" lon="8.752741815723944"><ele>267.1666666666667</ele><time>2026-05-01T09:09:07.841Z</time></trkpt><trkpt lat="40.9013993483093" lon="8.752637003564214"><ele>266.0</ele><time>2026-05-01T09:09:08.841Z</time></trkpt><trkpt lat="40.90134988405081" lon="8.752537041012669"><ele>266.0</ele><time>2026-05-01T09:09:09.841Z</time></trkpt><trkpt lat="40.901275422419026" lon="8.752443652977439"><ele>266.0</ele><time>2026-05-01T09:09:10.841Z</time></trkpt><trkpt lat="40.90120824581924" lon="8.752352986951964"><ele>266.0</ele><time>2026-05-01T09:09:11.841Z</time></trkpt><trkpt lat="40.90114465052399" lon="8.752247533032387"><ele>266.0</ele><time>2026-05-01T09:09:12.841Z</time></trkpt><trkpt lat="40.90109923232516" lon="8.752138531846835"><ele>266.0</ele><time>2026-05-01T09:09:13.841Z</time></trkpt><trkpt lat="40.90105008909787" lon="8.752023245808326"><ele>266.0</ele><time>2026-05-01T09:09:14.841Z</time></trkpt><trkpt lat="40.901010753085906" lon="8.751915682333275"><ele>266.0</ele><time>2026-05-01T09:09:15.841Z</time></trkpt><trkpt lat="40.90098181422388" lon="8.75180711864318"><ele>266.0</ele><time>2026-05-01T09:09:16.841Z</time></trkpt><trkpt lat="40.90096786476564" lon="8.75168967071623"><ele>266.0</ele><time>2026-05-01T09:09:17.841Z</time></trkpt><trkpt lat="40.90095291722038" lon="8.751548063704163"><ele>266.0</ele><time>2026-05-01T09:09:18.841Z</time></trkpt><trkpt lat="40.90094117827567" lon="8.751425065784408"><ele>265.2</ele><time>2026-05-01T09:09:19.841Z</time></trkpt><trkpt lat="40.900932084519326" lon="8.751281614411113"><ele>264.40000000000003</ele><time>2026-05-01T09:09:20.841Z</time></trkpt><trkpt lat="40.90092182544753" lon="8.751100939911577"><ele>263.6</ele><time>2026-05-01T09:09:21.841Z</time></trkpt><trkpt lat="40.900913853186054" lon="8.750950792093223"><ele>262.8</ele><time>2026-05-01T09:09:22.841Z</time></trkpt><trkpt lat="40.900904881733496" lon="8.750836159451177"><ele>262.0</ele><time>2026-05-01T09:09:23.841Z</time></trkpt><trkpt lat="40.900867461925806" lon="8.75072322688614"><ele>261.5</ele><time>2026-05-01T09:09:25.841Z</time></trkpt><trkpt lat="40.900804583340644" lon="8.750664632905243"><ele>261.0</ele><time>2026-05-01T09:09:27.841Z</time></trkpt><trkpt lat="40.90071285870473" lon="8.750659895040066"><ele>260.5</ele><time>2026-05-01T09:09:30.841Z</time></trkpt><trkpt lat="40.90065625579571" lon="8.7507224416889"><ele>260.0</ele><time>2026-05-01T09:09:32.841Z</time></trkpt><trkpt lat="40.90060129377793" lon="8.750868041106234"><ele>259.5</ele><time>2026-05-01T09:09:34.841Z</time></trkpt><trkpt lat="40.90055424495212" lon="8.750949373577528"><ele>259.0</ele><time>2026-05-01T09:09:35.841Z</time></trkpt><trkpt lat="40.900505159618845" lon="8.751031591387267"><ele>259.59999999999997</ele><time>2026-05-01T09:09:36.841Z</time></trkpt><trkpt lat="40.90046077453534" lon="8.751102980120757"><ele>260.2</ele><time>2026-05-01T09:09:37.841Z</time></trkpt><trkpt lat="40.90037288023344" lon="8.751192959411302"><ele>260.79999999999995</ele><time>2026-05-01T09:09:39.841Z</time></trkpt><trkpt lat="40.900279859791624" lon="8.751203234213568"><ele>261.4</ele><time>2026-05-01T09:09:41.841Z</time></trkpt><trkpt lat="40.900139031058906" lon="8.751167602514334"><ele>262.0</ele><time>2026-05-01T09:09:43.841Z</time></trkpt><trkpt lat="40.90004731893558" lon="8.75114769710689"><ele>262.4</ele><time>2026-05-01T09:09:44.841Z</time></trkpt><trkpt lat="40.89997192527715" lon="8.751082697779637"><ele>262.79999999999995</ele><time>2026-05-01T09:09:45.841Z</time></trkpt><trkpt lat="40.89988583563442" lon="8.751028733565501"><ele>263.2</ele><time>2026-05-01T09:09:46.841Z</time></trkpt><trkpt lat="40.89980245481409" lon="8.750969945804194"><ele>263.59999999999997</ele><time>2026-05-01T09:09:47.841Z</time></trkpt><trkpt lat="40.89970215762314" lon="8.750920090854745"><ele>264.0</ele><time>2026-05-01T09:09:48.841Z</time></trkpt><trkpt lat="40.89961344950205" lon="8.750846759381128"><ele>264.0</ele><time>2026-05-01T09:09:49.841Z</time></trkpt><trkpt lat="40.89952497368414" lon="8.750788607759803"><ele>264.0</ele><time>2026-05-01T09:09:50.841Z</time></trkpt><trkpt lat="40.89943024636286" lon="8.750734482958718"><ele>264.0</ele><time>2026-05-01T09:09:51.84Z</time></trkpt><trkpt lat="40.89933634888703" lon="8.750728397689326"><ele>264.0</ele><time>2026-05-01T09:09:52.84Z</time></trkpt><trkpt lat="40.89923798327276" lon="8.750734749173395"><ele>264.0</ele><time>2026-05-01T09:09:53.84Z</time></trkpt><trkpt lat="40.899136169689676" lon="8.75073133525124"><ele>262.8</ele><time>2026-05-01T09:09:54.84Z</time></trkpt><trkpt lat="40.89901860415624" lon="8.750743455110143"><ele>261.59999999999997</ele><time>2026-05-01T09:09:55.84Z</time></trkpt><trkpt lat="40.898906113057095" lon="8.750749137013962"><ele>260.4</ele><time>2026-05-01T09:09:56.84Z</time></trkpt><trkpt lat="40.89879921614411" lon="8.750749662314176"><ele>259.2</ele><time>2026-05-01T09:09:57.84Z</time></trkpt><trkpt lat="40.898702553301376" lon="8.750748821077496"><ele>258.0</ele><time>2026-05-01T09:09:58.84Z</time></trkpt><trkpt lat="40.89859737521813" lon="8.750766014216879"><ele>258.0</ele><time>2026-05-01T09:09:59.84Z</time></trkpt><trkpt lat="40.89848935788901" lon="8.75075420446134"><ele>258.0</ele><time>2026-05-01T09:10:00.84Z</time></trkpt><trkpt lat="40.89837490316898" lon="8.750724968972248"><ele>258.0</ele><time>2026-05-01T09:10:01.84Z</time></trkpt><trkpt lat="40.898260441047604" lon="8.750709246558996"><ele>258.0</ele><time>2026-05-01T09:10:02.84Z</time></trkpt><trkpt lat="40.89814078085738" lon="8.750712398749798"><ele>259.0</ele><time>2026-05-01T09:10:03.84Z</time></trkpt><trkpt lat="40.898018127823576" lon="8.750707847941833"><ele>260.0</ele><time>2026-05-01T09:10:04.84Z</time></trkpt><trkpt lat="40.897892479014" lon="8.750713315615828"><ele>261.0</ele><time>2026-05-01T09:10:05.84Z</time></trkpt><trkpt lat="40.89776334402346" lon="8.750707533676206"><ele>262.0</ele><time>2026-05-01T09:10:06.84Z</time></trkpt><trkpt lat="40.89764118954362" lon="8.750697437089707"><ele>263.5</ele><time>2026-05-01T09:10:07.84Z</time></trkpt><trkpt lat="40.89751749353876" lon="8.750698715103908"><ele>265.0</ele><time>2026-05-01T09:10:08.84Z</time></trkpt><trkpt lat="40.89739295362649" lon="8.750693277748157"><ele>266.5</ele><time>2026-05-01T09:10:09.84Z</time></trkpt><trkpt lat="40.897306898205905" lon="8.750694646989356"><ele>268.0</ele><time>2026-05-01T09:10:10.84Z</time></trkpt><trkpt lat="40.89718796020289" lon="8.750746467080564"><ele>268.0</ele><time>2026-05-01T09:10:11.84Z</time></trkpt><trkpt lat="40.897069084161615" lon="8.750773344802884"><ele>268.0</ele><time>2026-05-01T09:10:12.84Z</time></trkpt><trkpt lat="40.89695430687581" lon="8.75080381871074"><ele>268.0</ele><time>2026-05-01T09:10:13.84Z</time></trkpt><trkpt lat="40.89684465846767" lon="8.750831797183839"><ele>268.0</ele><time>2026-05-01T09:10:14.84Z</time></trkpt><trkpt lat="40.896746434957414" lon="8.750858291580597"><ele>268.8333333333333</ele><time>2026-05-01T09:10:15.84Z</time></trkpt><trkpt lat="40.896661384081916" lon="8.750854020103537"><ele>269.66666666666663</ele><time>2026-05-01T09:10:16.84Z</time></trkpt><trkpt lat="40.89658208482885" lon="8.750864356950776"><ele>270.5</ele><time>2026-05-01T09:10:17.84Z</time></trkpt><trkpt lat="40.89650025666003" lon="8.75084418692743"><ele>271.3333333333333</ele><time>2026-05-01T09:10:18.84Z</time></trkpt><trkpt lat="40.89640851596669" lon="8.750805503990938"><ele>272.1666666666667</ele><time>2026-05-01T09:10:19.84Z</time></trkpt><trkpt lat="40.89630828081949" lon="8.750770142798183"><ele>273.0</ele><time>2026-05-01T09:10:20.84Z</time></trkpt><trkpt lat="40.89619235852723" lon="8.750728612019332"><ele>273.0</ele><time>2026-05-01T09:10:21.84Z</time></trkpt><trkpt lat="40.8960638443101" lon="8.750697750737103"><ele>273.0</ele><time>2026-05-01T09:10:22.84Z</time></trkpt><trkpt lat="40.895936824149594" lon="8.750651847299336"><ele>273.0</ele><time>2026-05-01T09:10:23.84Z</time></trkpt><trkpt lat="40.89582141480064" lon="8.750610401524387"><ele>273.0</ele><time>2026-05-01T09:10:24.84Z</time></trkpt><trkpt lat="40.895723673900044" lon="8.75056742437334"><ele>271.6666666666667</ele><time>2026-05-01T09:10:25.84Z</time></trkpt><trkpt lat="40.8956577352284" lon="8.750506764447188"><ele>270.3333333333333</ele><time>2026-05-01T09:10:26.84Z</time></trkpt><trkpt lat="40.89560657298064" lon="8.750451138619335"><ele>269.0</ele><time>2026-05-01T09:10:27.84Z</time></trkpt><trkpt lat="40.89556193156471" lon="8.750361307439988"><ele>267.66666666666663</ele><time>2026-05-01T09:10:28.84Z</time></trkpt><trkpt lat="40.89552328337266" lon="8.750256996848448"><ele>266.3333333333333</ele><time>2026-05-01T09:10:29.84Z</time></trkpt><trkpt lat="40.895491398126126" lon="8.750139855044324"><ele>265.0</ele><time>2026-05-01T09:10:30.84Z</time></trkpt><trkpt lat="40.895460770145974" lon="8.750015950442725"><ele>269.6</ele><time>2026-05-01T09:10:31.84Z</time></trkpt><trkpt lat="40.895422926711284" lon="8.74989456569658"><ele>274.2</ele><time>2026-05-01T09:10:32.84Z</time></trkpt><trkpt lat="40.895409087589016" lon="8.749783416540167"><ele>278.8</ele><time>2026-05-01T09:10:33.84Z</time></trkpt><trkpt lat="40.89541404595672" lon="8.749665456069367"><ele>283.4</ele><time>2026-05-01T09:10:34.84Z</time></trkpt><trkpt lat="40.89541268942921" lon="8.749541476258274"><ele>288.0</ele><time>2026-05-01T09:10:35.84Z</time></trkpt><trkpt lat="40.895414860249566" lon="8.749420446260741"><ele>287.1666666666667</ele><time>2026-05-01T09:10:36.84Z</time></trkpt><trkpt lat="40.89541951410823" lon="8.749308868971683"><ele>286.3333333333333</ele><time>2026-05-01T09:10:37.84Z</time></trkpt><trkpt lat="40.895425162135815" lon="8.749200705823485"><ele>285.5</ele><time>2026-05-01T09:10:38.84Z</time></trkpt><trkpt lat="40.89543248353279" lon="8.749096288084372"><ele>284.66666666666663</ele><time>2026-05-01T09:10:39.84Z</time></trkpt><trkpt lat="40.89542708243986" lon="8.748994517059032"><ele>283.8333333333333</ele><time>2026-05-01T09:10:40.84Z</time></trkpt><trkpt lat="40.89543940136245" lon="8.748892896363632"><ele>283.0</ele><time>2026-05-01T09:10:41.84Z</time></trkpt><trkpt lat="40.89546745407607" lon="8.748799963485514"><ele>283.0</ele><time>2026-05-01T09:10:42.84Z</time></trkpt><trkpt lat="40.895493697896455" lon="8.748705751873047"><ele>283.0</ele><time>2026-05-01T09:10:43.84Z</time></trkpt><trkpt lat="40.89551571954352" lon="8.748606872973706"><ele>283.0</ele><time>2026-05-01T09:10:44.84Z</time></trkpt><trkpt lat="40.89555336511822" lon="8.748504259204761"><ele>283.0</ele><time>2026-05-01T09:10:45.84Z</time></trkpt><trkpt lat="40.895594737309686" lon="8.748409929402495"><ele>283.0</ele><time>2026-05-01T09:10:46.84Z</time></trkpt><trkpt lat="40.895655050546004" lon="8.748334493534134"><ele>283.0</ele><time>2026-05-01T09:10:47.84Z</time></trkpt><trkpt lat="40.89569699057829" lon="8.748223823040961"><ele>283.66666666666663</ele><time>2026-05-01T09:10:48.84Z</time></trkpt><trkpt lat="40.89574972892236" lon="8.748146565470995"><ele>284.3333333333333</ele><time>2026-05-01T09:10:49.838Z</time></trkpt><trkpt lat="40.8957950969999" lon="8.748064050321975"><ele>285.0</ele><time>2026-05-01T09:10:50.838Z</time></trkpt><trkpt lat="40.89584145311136" lon="8.747982084292685"><ele>285.6666666666667</ele><time>2026-05-01T09:10:51.838Z</time></trkpt><trkpt lat="40.89589819998693" lon="8.747908598899361"><ele>286.33333333333337</ele><time>2026-05-01T09:10:52.838Z</time></trkpt><trkpt lat="40.89594399114951" lon="8.747828629159462"><ele>287.0</ele><time>2026-05-01T09:10:53.838Z</time></trkpt><trkpt lat="40.89599244885387" lon="8.747744002624172"><ele>283.0</ele><time>2026-05-01T09:10:54.838Z</time></trkpt><trkpt lat="40.896029214009396" lon="8.747643584536862"><ele>279.0</ele><time>2026-05-01T09:10:55.838Z</time></trkpt><trkpt lat="40.89608737474442" lon="8.747555421687446"><ele>275.0</ele><time>2026-05-01T09:10:56.837Z</time></trkpt><trkpt lat="40.896134174445045" lon="8.747469325431343"><ele>271.0</ele><time>2026-05-01T09:10:57.837Z</time></trkpt><trkpt lat="40.896176753537226" lon="8.747366120219164"><ele>267.0</ele><time>2026-05-01T09:10:58.837Z</time></trkpt><trkpt lat="40.8962258635044" lon="8.747234393466696"><ele>267.0</ele><time>2026-05-01T09:10:59.837Z</time></trkpt><trkpt lat="40.89629878341688" lon="8.747136273696617"><ele>267.0</ele><time>2026-05-01T09:11:00.837Z</time></trkpt><trkpt lat="40.89635700753254" lon="8.747036517707485"><ele>267.0</ele><time>2026-05-01T09:11:01.837Z</time></trkpt><trkpt lat="40.896404936488466" lon="8.746931207954889"><ele>267.0</ele><time>2026-05-01T09:11:02.837Z</time></trkpt><trkpt lat="40.896459410709944" lon="8.746830059394396"><ele>267.0</ele><time>2026-05-01T09:11:03.837Z</time></trkpt><trkpt lat="40.89650835614797" lon="8.746729947969865"><ele>267.8</ele><time>2026-05-01T09:11:04.837Z</time></trkpt><trkpt lat="40.89655715202938" lon="8.74663259848453"><ele>268.6</ele><time>2026-05-01T09:11:05.837Z</time></trkpt><trkpt lat="40.89662526609248" lon="8.746549689455437"><ele>269.40000000000003</ele><time>2026-05-01T09:11:06.837Z</time></trkpt><trkpt lat="40.89668723797107" lon="8.746446909422442"><ele>270.2</ele><time>2026-05-01T09:11:07.837Z</time></trkpt><trkpt lat="40.8967324042837" lon="8.746336250548936"><ele>271.0</ele><time>2026-05-01T09:11:08.837Z</time></trkpt><trkpt lat="40.89679327806606" lon="8.746252881903288"><ele>271.0</ele><time>2026-05-01T09:11:09.837Z</time></trkpt><trkpt lat="40.896845296718496" lon="8.746158209416471"><ele>271.0</ele><time>2026-05-01T09:11:10.837Z</time></trkpt><trkpt lat="40.89689740722185" lon="8.746069698292047"><ele>271.0</ele><time>2026-05-01T09:11:11.837Z</time></trkpt><trkpt lat="40.89694709500109" lon="8.745982102683419"><ele>271.0</ele><time>2026-05-01T09:11:12.837Z</time></trkpt><trkpt lat="40.8969966708073" lon="8.745889988602082"><ele>271.0</ele><time>2026-05-01T09:11:13.837Z</time></trkpt><trkpt lat="40.897041735346555" lon="8.745817565070011"><ele>271.0</ele><time>2026-05-01T09:11:14.837Z</time></trkpt><trkpt lat="40.89710872582685" lon="8.745715207173484"><ele>266.8333333333333</ele><time>2026-05-01T09:11:16.837Z</time></trkpt><trkpt lat="40.897108784752234" lon="8.745629366681584"><ele>262.66666666666663</ele><time>2026-05-01T09:11:20.837Z</time></trkpt><trkpt lat="40.8970501504959" lon="8.745546899775013"><ele>258.5</ele><time>2026-05-01T09:11:23.837Z</time></trkpt><trkpt lat="40.89694877612756" lon="8.74562058919079"><ele>254.33333333333331</ele><time>2026-05-01T09:11:25.837Z</time></trkpt><trkpt lat="40.89688126710716" lon="8.745669103948947"><ele>250.16666666666666</ele><time>2026-05-01T09:11:26.837Z</time></trkpt><trkpt lat="40.896809714500975" lon="8.745700613737618"><ele>246.0</ele><time>2026-05-01T09:11:27.837Z</time></trkpt><trkpt lat="40.896741610780666" lon="8.745731247508601"><ele>242.5</ele><time>2026-05-01T09:11:28.837Z</time></trkpt><trkpt lat="40.89666523451342" lon="8.745759039184101"><ele>239.0</ele><time>2026-05-01T09:11:29.837Z</time></trkpt><trkpt lat="40.896583931308065" lon="8.745784398638202"><ele>235.5</ele><time>2026-05-01T09:11:30.837Z</time></trkpt><trkpt lat="40.89650906688229" lon="8.74582856512257"><ele>232.0</ele><time>2026-05-01T09:11:31.837Z</time></trkpt><trkpt lat="40.89642066338577" lon="8.745863024732898"><ele>228.5</ele><time>2026-05-01T09:11:32.837Z</time></trkpt><trkpt lat="40.896335376908176" lon="8.745894650485786"><ele>225.0</ele><time>2026-05-01T09:11:33.837Z</time></trkpt><trkpt lat="40.89626037445438" lon="8.74593231097582"><ele>225.0</ele><time>2026-05-01T09:11:34.837Z</time></trkpt><trkpt lat="40.8961853641069" lon="8.745975609950378"><ele>225.0</ele><time>2026-05-01T09:11:35.837Z</time></trkpt><trkpt lat="40.89611320025795" lon="8.746011528062377"><ele>225.0</ele><time>2026-05-01T09:11:36.837Z</time></trkpt><trkpt lat="40.89603170114318" lon="8.746048476984168"><ele>225.0</ele><time>2026-05-01T09:11:37.837Z</time></trkpt><trkpt lat="40.895957539655335" lon="8.746079182850375"><ele>225.0</ele><time>2026-05-01T09:11:38.837Z</time></trkpt><trkpt lat="40.89589566415673" lon="8.74611001137391"><ele>225.0</ele><time>2026-05-01T09:11:39.837Z</time></trkpt><trkpt lat="40.89582968631233" lon="8.746137850493811"><ele>225.0</ele><time>2026-05-01T09:11:40.837Z</time></trkpt><trkpt lat="40.89575853453362" lon="8.746168881847"><ele>225.0</ele><time>2026-05-01T09:11:41.837Z</time></trkpt><trkpt lat="40.895689313453964" lon="8.746196875716631"><ele>225.0</ele><time>2026-05-01T09:11:42.837Z</time></trkpt><trkpt lat="40.89559123417343" lon="8.746208371794802"><ele>225.0</ele><time>2026-05-01T09:11:44.837Z</time></trkpt><trkpt lat="40.89554165995197" lon="8.746153576497306"><ele>225.0</ele><time>2026-05-01T09:11:48.837Z</time></trkpt><trkpt lat="40.895595424108386" lon="8.746098981461058"><ele>225.0</ele><time>2026-05-01T09:11:50.837Z</time></trkpt><trkpt lat="40.89567732694347" lon="8.745968134010468"><ele>225.0</ele><time>2026-05-01T09:11:52.837Z</time></trkpt><trkpt lat="40.89572166712863" lon="8.745862331896472"><ele>225.0</ele><time>2026-05-01T09:11:53.837Z</time></trkpt><trkpt lat="40.89578293867359" lon="8.745746179690965"><ele>225.0</ele><time>2026-05-01T09:11:54.837Z</time></trkpt><trkpt lat="40.89585319557252" lon="8.74566183140109"><ele>225.0</ele><time>2026-05-01T09:11:55.837Z</time></trkpt><trkpt lat="40.895905016297654" lon="8.745573788303215"><ele>225.0</ele><time>2026-05-01T09:11:56.837Z</time></trkpt><trkpt lat="40.89595386776216" lon="8.745476288695027"><ele>225.0</ele><time>2026-05-01T09:11:57.837Z</time></trkpt><trkpt lat="40.8959922588146" lon="8.74536987712801"><ele>225.0</ele><time>2026-05-01T09:11:58.837Z</time></trkpt><trkpt lat="40.896061109142586" lon="8.74530136363198"><ele>225.0</ele><time>2026-05-01T09:11:59.837Z</time></trkpt><trkpt lat="40.896129426309216" lon="8.745218210324268"><ele>225.0</ele><time>2026-05-01T09:12:00.837Z</time></trkpt><trkpt lat="40.89619902232066" lon="8.745136130366848"><ele>225.0</ele><time>2026-05-01T09:12:01.837Z</time></trkpt><trkpt lat="40.89627763345864" lon="8.745038842565815"><ele>221.0</ele><time>2026-05-01T09:12:02.837Z</time></trkpt><trkpt lat="40.89633089038399" lon="8.744943379780672"><ele>217.0</ele><time>2026-05-01T09:12:03.837Z</time></trkpt><trkpt lat="40.89641424127705" lon="8.74485099128623"><ele>213.0</ele><time>2026-05-01T09:12:04.837Z</time></trkpt><trkpt lat="40.89648306799551" lon="8.744773022346125"><ele>209.0</ele><time>2026-05-01T09:12:05.837Z</time></trkpt><trkpt lat="40.896564497352486" lon="8.744683037128137"><ele>205.0</ele><time>2026-05-01T09:12:06.836Z</time></trkpt><trkpt lat="40.89664495063338" lon="8.744590606283424"><ele>205.0</ele><time>2026-05-01T09:12:07.836Z</time></trkpt><trkpt lat="40.896723113296304" lon="8.744493193751723"><ele>205.0</ele><time>2026-05-01T09:12:08.836Z</time></trkpt><trkpt lat="40.89681764699398" lon="8.744410112412398"><ele>205.0</ele><time>2026-05-01T09:12:09.836Z</time></trkpt><trkpt lat="40.896898422200074" lon="8.744311333143825"><ele>205.0</ele><time>2026-05-01T09:12:10.836Z</time></trkpt><trkpt lat="40.896973568944695" lon="8.744217665304664"><ele>205.0</ele><time>2026-05-01T09:12:11.836Z</time></trkpt><trkpt lat="40.89705487429736" lon="8.744117727531822"><ele>203.6</ele><time>2026-05-01T09:12:12.836Z</time></trkpt><trkpt lat="40.89713372358398" lon="8.743994324077137"><ele>202.2</ele><time>2026-05-01T09:12:13.836Z</time></trkpt><trkpt lat="40.897228926274266" lon="8.743914778803553"><ele>200.8</ele><time>2026-05-01T09:12:14.836Z</time></trkpt><trkpt lat="40.89731276605918" lon="8.743834215049606"><ele>199.4</ele><time>2026-05-01T09:12:15.836Z</time></trkpt><trkpt lat="40.89737191354146" lon="8.743745812842397"><ele>198.0</ele><time>2026-05-01T09:12:16.836Z</time></trkpt><trkpt lat="40.89741271391423" lon="8.743669006295733"><ele>198.0</ele><time>2026-05-01T09:12:17.836Z</time></trkpt><trkpt lat="40.897480085098245" lon="8.743576187201537"><ele>198.0</ele><time>2026-05-01T09:12:18.836Z</time></trkpt><trkpt lat="40.89756016574372" lon="8.743499643349205"><ele>198.0</ele><time>2026-05-01T09:12:19.836Z</time></trkpt><trkpt lat="40.897651082554496" lon="8.743385099110755"><ele>198.0</ele><time>2026-05-01T09:12:20.836Z</time></trkpt><trkpt lat="40.897727657067364" lon="8.743258752223525"><ele>198.0</ele><time>2026-05-01T09:12:21.836Z</time></trkpt><trkpt lat="40.8978164962553" lon="8.743164085728372"><ele>197.0</ele><time>2026-05-01T09:12:22.836Z</time></trkpt><trkpt lat="40.89789332362201" lon="8.743092428878866"><ele>196.0</ele><time>2026-05-01T09:12:23.836Z</time></trkpt><trkpt lat="40.897956667587394" lon="8.743034502009905"><ele>195.0</ele><time>2026-05-01T09:12:24.836Z</time></trkpt><trkpt lat="40.89800950854748" lon="8.742980781016273"><ele>194.0</ele><time>2026-05-01T09:12:25.836Z</time></trkpt><trkpt lat="40.898060734463236" lon="8.742919270052086"><ele>193.0</ele><time>2026-05-01T09:12:26.836Z</time></trkpt><trkpt lat="40.898121739867314" lon="8.742844321713338"><ele>192.0</ele><time>2026-05-01T09:12:27.836Z</time></trkpt><trkpt lat="40.89820210826617" lon="8.742789260505809"><ele>192.0</ele><time>2026-05-01T09:12:28.836Z</time></trkpt><trkpt lat="40.898301318454195" lon="8.742722466490708"><ele>192.0</ele><time>2026-05-01T09:12:29.836Z</time></trkpt><trkpt lat="40.898420348889985" lon="8.742642328359512"><ele>192.0</ele><time>2026-05-01T09:12:30.836Z</time></trkpt><trkpt lat="40.89855481707526" lon="8.74255646481296"><ele>192.0</ele><time>2026-05-01T09:12:31.836Z</time></trkpt><trkpt lat="40.89870565691413" lon="8.742491582948196"><ele>189.0</ele><time>2026-05-01T09:12:32.836Z</time></trkpt><trkpt lat="40.89884983358968" lon="8.742390283881553"><ele>186.0</ele><time>2026-05-01T09:12:33.836Z</time></trkpt><trkpt lat="40.89900139328223" lon="8.742322571829032"><ele>183.0</ele><time>2026-05-01T09:12:34.836Z</time></trkpt><trkpt lat="40.89915491591766" lon="8.742247785722721"><ele>185.33333333333334</ele><time>2026-05-01T09:12:35.836Z</time></trkpt><trkpt lat="40.89931130138101" lon="8.742186160009918"><ele>187.66666666666669</ele><time>2026-05-01T09:12:36.836Z</time></trkpt><trkpt lat="40.89945587600724" lon="8.742103101399735"><ele>190.0</ele><time>2026-05-01T09:12:37.836Z</time></trkpt><trkpt lat="40.89959468298105" lon="8.742040054008568"><ele>190.0</ele><time>2026-05-01T09:12:38.836Z</time></trkpt><trkpt lat="40.899738308082306" lon="8.74199480482635"><ele>190.0</ele><time>2026-05-01T09:12:39.836Z</time></trkpt><trkpt lat="40.89986424700798" lon="8.741917705126507"><ele>190.0</ele><time>2026-05-01T09:12:40.836Z</time></trkpt><trkpt lat="40.89998991359045" lon="8.74186042731543"><ele>190.0</ele><time>2026-05-01T09:12:41.836Z</time></trkpt><trkpt lat="40.900116247985714" lon="8.741802845148392"><ele>186.5</ele><time>2026-05-01T09:12:42.836Z</time></trkpt><trkpt lat="40.90024453373761" lon="8.741745238730017"><ele>183.0</ele><time>2026-05-01T09:12:43.836Z</time></trkpt><trkpt lat="40.900368853317815" lon="8.741690413361038"><ele>179.5</ele><time>2026-05-01T09:12:44.836Z</time></trkpt><trkpt lat="40.90049352781523" lon="8.741630989409934"><ele>176.0</ele><time>2026-05-01T09:12:45.836Z</time></trkpt><trkpt lat="40.900595724437004" lon="8.74157454190909"><ele>176.0</ele><time>2026-05-01T09:12:46.836Z</time></trkpt><trkpt lat="40.90068539371659" lon="8.741515908564088"><ele>176.0</ele><time>2026-05-01T09:12:47.836Z</time></trkpt><trkpt lat="40.90075384401007" lon="8.74139802554704"><ele>176.0</ele><time>2026-05-01T09:12:48.836Z</time></trkpt><trkpt lat="40.90079685189723" lon="8.741277191440721"><ele>176.0</ele><time>2026-05-01T09:12:49.836Z</time></trkpt><trkpt lat="40.900843331515624" lon="8.741148718189631"><ele>176.0</ele><time>2026-05-01T09:12:50.836Z</time></trkpt><trkpt lat="40.90090984749511" lon="8.741013781417811"><ele>172.25</ele><time>2026-05-01T09:12:51.836Z</time></trkpt><trkpt lat="40.90097904612568" lon="8.740861595052136"><ele>168.5</ele><time>2026-05-01T09:12:52.836Z</time></trkpt><trkpt lat="40.90108314367467" lon="8.740744949499863"><ele>164.75</ele><time>2026-05-01T09:12:53.836Z</time></trkpt><trkpt lat="40.901196183384776" lon="8.740636057103142"><ele>161.0</ele><time>2026-05-01T09:12:54.836Z</time></trkpt><trkpt lat="40.90131078270399" lon="8.740546599592827"><ele>161.0</ele><time>2026-05-01T09:12:55.835Z</time></trkpt><trkpt lat="40.901412366411996" lon="8.74042777696224"><ele>161.0</ele><time>2026-05-01T09:12:56.834Z</time></trkpt><trkpt lat="40.90150067568741" lon="8.74030473363976"><ele>161.0</ele><time>2026-05-01T09:12:57.834Z</time></trkpt><trkpt lat="40.90158216378187" lon="8.740171684839094"><ele>161.0</ele><time>2026-05-01T09:12:58.835Z</time></trkpt><trkpt lat="40.90166910293461" lon="8.740045617945809"><ele>158.0</ele><time>2026-05-01T09:12:59.835Z</time></trkpt><trkpt lat="40.90175801080898" lon="8.73992932405696"><ele>155.0</ele><time>2026-05-01T09:13:00.835Z</time></trkpt><trkpt lat="40.90183962301851" lon="8.739830884782169"><ele>152.0</ele><time>2026-05-01T09:13:01.834Z</time></trkpt><trkpt lat="40.901904731647484" lon="8.73974795316762"><ele>149.0</ele><time>2026-05-01T09:13:02.835Z</time></trkpt><trkpt lat="40.90197256130401" lon="8.739654272166723"><ele>146.0</ele><time>2026-05-01T09:13:03.835Z</time></trkpt><trkpt lat="40.90202394606755" lon="8.73954449913323"><ele>146.0</ele><time>2026-05-01T09:13:04.834Z</time></trkpt><trkpt lat="40.902072199841655" lon="8.739440836019376"><ele>146.0</ele><time>2026-05-01T09:13:05.834Z</time></trkpt><trkpt lat="40.90211204997947" lon="8.739353177285253"><ele>146.0</ele><time>2026-05-01T09:13:06.834Z</time></trkpt><trkpt lat="40.90214069302768" lon="8.739262583992401"><ele>146.0</ele><time>2026-05-01T09:13:07.834Z</time></trkpt><trkpt lat="40.90217778667281" lon="8.739183301311531"><ele>146.0</ele><time>2026-05-01T09:13:08.834Z</time></trkpt><trkpt lat="40.90222203288728" lon="8.739109326824297"><ele>146.0</ele><time>2026-05-01T09:13:10.834Z</time></trkpt><trkpt lat="40.90225843790438" lon="8.739017885642811"><ele>149.0</ele><time>2026-05-01T09:13:14.834Z</time></trkpt><trkpt lat="40.902125794877584" lon="8.738918275467839"><ele>152.0</ele><time>2026-05-01T09:13:21.834Z</time></trkpt><trkpt lat="40.902036929430416" lon="8.738877120426329"><ele>155.0</ele><time>2026-05-01T09:13:23.834Z</time></trkpt><trkpt lat="40.90193612924419" lon="8.738875488466821"><ele>158.0</ele><time>2026-05-01T09:13:25.834Z</time></trkpt><trkpt lat="40.9018453714558" lon="8.738967464018987"><ele>158.0</ele><time>2026-05-01T09:13:27.834Z</time></trkpt><trkpt lat="40.901756510377034" lon="8.73908026475996"><ele>158.0</ele><time>2026-05-01T09:13:29.834Z</time></trkpt><trkpt lat="40.90173295547947" lon="8.739159856414169"><ele>158.0</ele><time>2026-05-01T09:13:30.834Z</time></trkpt><trkpt lat="40.90176573500534" lon="8.73927148347287"><ele>158.0</ele><time>2026-05-01T09:13:31.834Z</time></trkpt><trkpt lat="40.9017322913114" lon="8.739353359841903"><ele>158.0</ele><time>2026-05-01T09:13:32.834Z</time></trkpt><trkpt lat="40.90166929976328" lon="8.73938552913975"><ele>158.0</ele><time>2026-05-01T09:13:33.834Z</time></trkpt><trkpt lat="40.90157452096499" lon="8.739367411734428"><ele>160.60000000000002</ele><time>2026-05-01T09:13:35.834Z</time></trkpt><trkpt lat="40.901535255666765" lon="8.739268190957112"><ele>163.20000000000002</ele><time>2026-05-01T09:13:37.834Z</time></trkpt><trkpt lat="40.901550428158835" lon="8.739186310423916"><ele>165.8</ele><time>2026-05-01T09:13:40.834Z</time></trkpt><trkpt lat="40.901583418822405" lon="8.7390669791007"><ele>168.4</ele><time>2026-05-01T09:13:42.834Z</time></trkpt><trkpt lat="40.901680813273245" lon="8.738903508276985"><ele>171.0</ele><time>2026-05-01T09:13:44.834Z</time></trkpt><trkpt lat="40.90169397317593" lon="8.738816949073758"><ele>171.0</ele><time>2026-05-01T09:13:45.834Z</time></trkpt><trkpt lat="40.901690672713606" lon="8.738725387932426"><ele>171.0</ele><time>2026-05-01T09:13:46.834Z</time></trkpt><trkpt lat="40.90166476767466" lon="8.738642682302656"><ele>171.0</ele><time>2026-05-01T09:13:47.834Z</time></trkpt><trkpt lat="40.90161444624603" lon="8.738554618555709"><ele>171.0</ele><time>2026-05-01T09:13:48.834Z</time></trkpt><trkpt lat="40.901563839316665" lon="8.738468831631188"><ele>171.0</ele><time>2026-05-01T09:13:49.834Z</time></trkpt><trkpt lat="40.90150787531008" lon="8.738388308279578"><ele>171.0</ele><time>2026-05-01T09:13:50.834Z</time></trkpt><trkpt lat="40.901438211008056" lon="8.738330204882605"><ele>173.0</ele><time>2026-05-01T09:13:51.834Z</time></trkpt><trkpt lat="40.901385070096794" lon="8.738249191067249"><ele>175.0</ele><time>2026-05-01T09:13:52.834Z</time></trkpt><trkpt lat="40.90131907404247" lon="8.738179479925149"><ele>177.0</ele><time>2026-05-01T09:13:53.834Z</time></trkpt><trkpt lat="40.901246980583736" lon="8.738119413770379"><ele>179.0</ele><time>2026-05-01T09:13:54.834Z</time></trkpt><trkpt lat="40.90120326638179" lon="8.738031457523995"><ele>181.0</ele><time>2026-05-01T09:13:55.834Z</time></trkpt><trkpt lat="40.901163902104564" lon="8.737963976506279"><ele>183.0</ele><time>2026-05-01T09:13:56.834Z</time></trkpt><trkpt lat="40.90111537194352" lon="8.737890680897138"><ele>183.0</ele><time>2026-05-01T09:13:57.834Z</time></trkpt><trkpt lat="40.901060830768955" lon="8.737820468530707"><ele>183.0</ele><time>2026-05-01T09:13:58.834Z</time></trkpt><trkpt lat="40.90099209109089" lon="8.737752766866043"><ele>183.0</ele><time>2026-05-01T09:13:59.834Z</time></trkpt><trkpt lat="40.900930377785095" lon="8.73770465626045"><ele>183.0</ele><time>2026-05-01T09:14:00.834Z</time></trkpt><trkpt lat="40.900861597789124" lon="8.737660598981087"><ele>183.0</ele><time>2026-05-01T09:14:01.834Z</time></trkpt><trkpt lat="40.90077901949394" lon="8.737619947484193"><ele>183.0</ele><time>2026-05-01T09:14:02.834Z</time></trkpt><trkpt lat="40.90069098325738" lon="8.73758217203275"><ele>184.5</ele><time>2026-05-01T09:14:03.834Z</time></trkpt><trkpt lat="40.900610645236036" lon="8.73754000183141"><ele>186.0</ele><time>2026-05-01T09:14:04.834Z</time></trkpt><trkpt lat="40.900528767159564" lon="8.737473347059343"><ele>187.5</ele><time>2026-05-01T09:14:05.834Z</time></trkpt><trkpt lat="40.900458883309" lon="8.737405461052436"><ele>189.0</ele><time>2026-05-01T09:14:06.834Z</time></trkpt><trkpt lat="40.90039196002694" lon="8.737334246666709"><ele>190.5</ele><time>2026-05-01T09:14:07.834Z</time></trkpt><trkpt lat="40.90033159608714" lon="8.737258954076527"><ele>192.0</ele><time>2026-05-01T09:14:08.834Z</time></trkpt><trkpt lat="40.900278738870526" lon="8.737171270299715"><ele>192.0</ele><time>2026-05-01T09:14:09.833Z</time></trkpt><trkpt lat="40.900229844422185" lon="8.737097761543131"><ele>192.0</ele><time>2026-05-01T09:14:10.833Z</time></trkpt><trkpt lat="40.90016427805832" lon="8.73700185568506"><ele>192.0</ele><time>2026-05-01T09:14:11.833Z</time></trkpt><trkpt lat="40.90006547456508" lon="8.736917786930055"><ele>192.0</ele><time>2026-05-01T09:14:12.833Z</time></trkpt><trkpt lat="40.899954091598104" lon="8.736831440864314"><ele>192.0</ele><time>2026-05-01T09:14:13.833Z</time></trkpt><trkpt lat="40.89986810761318" lon="8.736721823237408"><ele>193.6</ele><time>2026-05-01T09:14:14.833Z</time></trkpt><trkpt lat="40.89981290942864" lon="8.73664440671533"><ele>195.2</ele><time>2026-05-01T09:14:15.833Z</time></trkpt><trkpt lat="40.899739758057585" lon="8.736570431874979"><ele>196.8</ele><time>2026-05-01T09:14:16.833Z</time></trkpt><trkpt lat="40.89966880090026" lon="8.73646387182612"><ele>198.4</ele><time>2026-05-01T09:14:17.833Z</time></trkpt><trkpt lat="40.89962606259341" lon="8.736335455163895"><ele>200.0</ele><time>2026-05-01T09:14:18.833Z</time></trkpt><trkpt lat="40.89955004665807" lon="8.736226151256647"><ele>200.00000000000003</ele><time>2026-05-01T09:14:19.833Z</time></trkpt><trkpt lat="40.899477341397905" lon="8.736169653086842"><ele>200.0</ele><time>2026-05-01T09:14:20.833Z</time></trkpt><trkpt lat="40.89942277552096" lon="8.736103459466326"><ele>200.0</ele><time>2026-05-01T09:14:21.833Z</time></trkpt><trkpt lat="40.89936053408378" lon="8.736022009385296"><ele>200.0</ele><time>2026-05-01T09:14:22.833Z</time></trkpt><trkpt lat="40.899298900333946" lon="8.73593855681771"><ele>200.00000000000003</ele><time>2026-05-01T09:14:23.833Z</time></trkpt><trkpt lat="40.89923442585119" lon="8.735842432526487"><ele>200.0</ele><time>2026-05-01T09:14:24.833Z</time></trkpt><trkpt lat="40.89917632010308" lon="8.735746340788555"><ele>201.2</ele><time>2026-05-01T09:14:25.833Z</time></trkpt><trkpt lat="40.89908568781846" lon="8.735608825054802"><ele>202.4</ele><time>2026-05-01T09:14:26.833Z</time></trkpt><trkpt lat="40.89900663978321" lon="8.73552284525562"><ele>203.60000000000002</ele><time>2026-05-01T09:14:27.833Z</time></trkpt><trkpt lat="40.89895180260503" lon="8.73542996896498"><ele>204.8</ele><time>2026-05-01T09:14:28.833Z</time></trkpt><trkpt lat="40.898892092564196" lon="8.735340210249552"><ele>206.0</ele><time>2026-05-01T09:14:29.833Z</time></trkpt><trkpt lat="40.89882203680135" lon="8.735236052097559"><ele>206.20000000000002</ele><time>2026-05-01T09:14:30.833Z</time></trkpt><trkpt lat="40.898776243225754" lon="8.735157670733562"><ele>206.4</ele><time>2026-05-01T09:14:31.833Z</time></trkpt><trkpt lat="40.89871457253018" lon="8.735038424057345"><ele>206.6</ele><time>2026-05-01T09:14:33.833Z</time></trkpt><trkpt lat="40.89869842028182" lon="8.734877719574797"><ele>206.8</ele><time>2026-05-01T09:14:35.833Z</time></trkpt><trkpt lat="40.89868673488412" lon="8.734790721950365"><ele>207.0</ele><time>2026-05-01T09:14:37.833Z</time></trkpt><trkpt lat="40.898740838895876" lon="8.734607559874593"><ele>207.0</ele><time>2026-05-01T09:14:38.833Z</time></trkpt><trkpt lat="40.898831244205724" lon="8.734622963918554"><ele>207.0</ele><time>2026-05-01T09:14:40.833Z</time></trkpt><trkpt lat="40.89891169591856" lon="8.73464560730308"><ele>207.0</ele><time>2026-05-01T09:14:43.833Z</time></trkpt><trkpt lat="40.89901041832918" lon="8.734692687556576"><ele>207.0</ele><time>2026-05-01T09:14:45.833Z</time></trkpt><trkpt lat="40.899066584679" lon="8.734740320775975"><ele>207.0</ele><time>2026-05-01T09:14:46.833Z</time></trkpt><trkpt lat="40.899129220775635" lon="8.734790152385933"><ele>207.0</ele><time>2026-05-01T09:14:47.833Z</time></trkpt><trkpt lat="40.899206520912784" lon="8.734828450886237"><ele>209.0</ele><time>2026-05-01T09:14:48.833Z</time></trkpt><trkpt lat="40.89927271535982" lon="8.734890616577035"><ele>211.0</ele><time>2026-05-01T09:14:49.833Z</time></trkpt><trkpt lat="40.89933046470812" lon="8.734930691995903"><ele>213.0</ele><time>2026-05-01T09:14:50.833Z</time></trkpt><trkpt lat="40.89948955191463" lon="8.735019948316907"><ele>215.0</ele><time>2026-05-01T09:14:52.833Z</time></trkpt><trkpt lat="40.899565410389044" lon="8.735072689629645"><ele>217.0</ele><time>2026-05-01T09:14:53.833Z</time></trkpt><trkpt lat="40.89961654318833" lon="8.735136905994487"><ele>216.99999999999997</ele><time>2026-05-01T09:14:54.833Z</time></trkpt><trkpt lat="40.89968954635409" lon="8.735170746850335"><ele>217.0</ele><time>2026-05-01T09:14:55.833Z</time></trkpt><trkpt lat="40.89976302167315" lon="8.735163093377102"><ele>217.0</ele><time>2026-05-01T09:14:56.833Z</time></trkpt><trkpt lat="40.89983349838826" lon="8.73516503751936"><ele>217.0</ele><time>2026-05-01T09:14:57.833Z</time></trkpt><trkpt lat="40.899901075215304" lon="8.735176251330914"><ele>216.99999999999997</ele><time>2026-05-01T09:14:58.833Z</time></trkpt><trkpt lat="40.89997377332464" lon="8.735208272774958"><ele>217.0</ele><time>2026-05-01T09:14:59.833Z</time></trkpt><trkpt lat="40.900054504987956" lon="8.735249399404712"><ele>217.33333333333331</ele><time>2026-05-01T09:15:00.833Z</time></trkpt><trkpt lat="40.90013392877132" lon="8.735288800780333"><ele>217.66666666666666</ele><time>2026-05-01T09:15:01.831Z</time></trkpt><trkpt lat="40.90021354252406" lon="8.735327455306903"><ele>218.0</ele><time>2026-05-01T09:15:02.83Z</time></trkpt><trkpt lat="40.90029135462146" lon="8.735380733255814"><ele>218.33333333333331</ele><time>2026-05-01T09:15:03.83Z</time></trkpt><trkpt lat="40.900372517508636" lon="8.7354427370248"><ele>218.66666666666666</ele><time>2026-05-01T09:15:04.831Z</time></trkpt><trkpt lat="40.90044833516516" lon="8.735508560564952"><ele>219.0</ele><time>2026-05-01T09:15:05.83Z</time></trkpt><trkpt lat="40.90051801649658" lon="8.735568040934139"><ele>219.0</ele><time>2026-05-01T09:15:06.83Z</time></trkpt><trkpt lat="40.90058885930912" lon="8.735628450071754"><ele>219.0</ele><time>2026-05-01T09:15:07.831Z</time></trkpt><trkpt lat="40.9006484646441" lon="8.735675696718102"><ele>219.0</ele><time>2026-05-01T09:15:08.83Z</time></trkpt><trkpt lat="40.90066630556872" lon="8.735766327018224"><ele>219.0</ele><time>2026-05-01T09:15:09.83Z</time></trkpt><trkpt lat="40.90071815246827" lon="8.73582770097408"><ele>219.0</ele><time>2026-05-01T09:15:10.83Z</time></trkpt><trkpt lat="40.90077917076636" lon="8.735859342538454"><ele>219.0</ele><time>2026-05-01T09:15:11.83Z</time></trkpt><trkpt lat="40.90087268630956" lon="8.73592226024313"><ele>219.66666666666666</ele><time>2026-05-01T09:15:13.829Z</time></trkpt><trkpt lat="40.900948156144004" lon="8.735963060433434"><ele>220.33333333333331</ele><time>2026-05-01T09:15:15.83Z</time></trkpt><trkpt lat="40.90107910912339" lon="8.735980406218548"><ele>221.0</ele><time>2026-05-01T09:15:17.83Z</time></trkpt><trkpt lat="40.90114923194815" lon="8.735976675036062"><ele>221.66666666666666</ele><time>2026-05-01T09:15:18.83Z</time></trkpt><trkpt lat="40.90122991705" lon="8.735961370541693"><ele>222.33333333333331</ele><time>2026-05-01T09:15:19.83Z</time></trkpt><trkpt lat="40.901298243920316" lon="8.735922990386436"><ele>223.0</ele><time>2026-05-01T09:15:20.83Z</time></trkpt><trkpt lat="40.90136908564602" lon="8.735897655065804"><ele>223.0</ele><time>2026-05-01T09:15:21.83Z</time></trkpt><trkpt lat="40.90143661430094" lon="8.73586521674967"><ele>223.0</ele><time>2026-05-01T09:15:22.83Z</time></trkpt><trkpt lat="40.9014991284301" lon="8.735821848645337"><ele>223.0</ele><time>2026-05-01T09:15:23.83Z</time></trkpt><trkpt lat="40.90155182527969" lon="8.73575868272805"><ele>223.0</ele><time>2026-05-01T09:15:24.83Z</time></trkpt><trkpt lat="40.90162470620488" lon="8.735727329561149"><ele>223.0</ele><time>2026-05-01T09:15:25.83Z</time></trkpt><trkpt lat="40.901690047692576" lon="8.735674800325123"><ele>223.0</ele><time>2026-05-01T09:15:26.83Z</time></trkpt><trkpt lat="40.90174228207199" lon="8.735614969508893"><ele>223.0</ele><time>2026-05-01T09:15:27.83Z</time></trkpt><trkpt lat="40.901770286833994" lon="8.735523407728232"><ele>223.0</ele><time>2026-05-01T09:15:28.83Z</time></trkpt><trkpt lat="40.90180133129203" lon="8.735435508068361"><ele>223.0</ele><time>2026-05-01T09:15:29.83Z</time></trkpt><trkpt lat="40.90186125234014" lon="8.735274677023334"><ele>223.0</ele><time>2026-05-01T09:15:31.83Z</time></trkpt><trkpt lat="40.90190608123628" lon="8.735107658378489"><ele>223.0</ele><time>2026-05-01T09:15:33.83Z</time></trkpt><trkpt lat="40.901950050681585" lon="8.735034638677437"><ele>223.0</ele><time>2026-05-01T09:15:34.829Z</time></trkpt><trkpt lat="40.901998040356226" lon="8.734973112821796"><ele>222.99999999999997</ele><time>2026-05-01T09:15:35.829Z</time></trkpt><trkpt lat="40.902057868579504" lon="8.734903655365619"><ele>223.0</ele><time>2026-05-01T09:15:36.829Z</time></trkpt><trkpt lat="40.90212065161958" lon="8.734853016027822"><ele>223.0</ele><time>2026-05-01T09:15:37.829Z</time></trkpt><trkpt lat="40.90218142044678" lon="8.73478006340186"><ele>223.0</ele><time>2026-05-01T09:15:38.829Z</time></trkpt><trkpt lat="40.9022398649302" lon="8.734738354157658"><ele>222.99999999999997</ele><time>2026-05-01T09:15:39.829Z</time></trkpt><trkpt lat="40.902339129200584" lon="8.734691950364555"><ele>223.0</ele><time>2026-05-01T09:15:41.829Z</time></trkpt><trkpt lat="40.90242268169085" lon="8.734697418327753"><ele>223.0</ele><time>2026-05-01T09:15:43.829Z</time></trkpt><trkpt lat="40.902521638551434" lon="8.734704174797608"><ele>223.0</ele><time>2026-05-01T09:15:45.829Z</time></trkpt><trkpt lat="40.9026232621082" lon="8.73470989624801"><ele>223.0</ele><time>2026-05-01T09:15:47.829Z</time></trkpt><trkpt lat="40.90264784351549" lon="8.734892474579397"><ele>223.0</ele><time>2026-05-01T09:15:48.829Z</time></trkpt><trkpt lat="40.90269883454532" lon="8.735006416670155"><ele>223.0</ele><time>2026-05-01T09:15:50.829Z</time></trkpt><trkpt lat="40.90274696364438" lon="8.735063999537845"><ele>221.2</ele><time>2026-05-01T09:15:52.829Z</time></trkpt><trkpt lat="40.90280789499564" lon="8.735167754696187"><ele>219.4</ele><time>2026-05-01T09:15:55.829Z</time></trkpt><trkpt lat="40.90285968646749" lon="8.735257743385857"><ele>217.59999999999997</ele><time>2026-05-01T09:15:57.829Z</time></trkpt><trkpt lat="40.90289972513828" lon="8.73537868219465"><ele>215.79999999999998</ele><time>2026-05-01T09:15:59.829Z</time></trkpt><trkpt lat="40.9029249926365" lon="8.735482069655303"><ele>214.0</ele><time>2026-05-01T09:16:01.829Z</time></trkpt><trkpt lat="40.90299863352419" lon="8.73555519387995"><ele>213.99999999999997</ele><time>2026-05-01T09:16:03.829Z</time></trkpt><trkpt lat="40.903072518556826" lon="8.735628595374283"><ele>214.0</ele><time>2026-05-01T09:16:05.829Z</time></trkpt><trkpt lat="40.90311918454864" lon="8.735758105045807"><ele>214.0</ele><time>2026-05-01T09:16:07.829Z</time></trkpt><trkpt lat="40.90315351102731" lon="8.735861878370114"><ele>214.0</ele><time>2026-05-01T09:16:09.829Z</time></trkpt><trkpt lat="40.903218393288924" lon="8.735912044378829"><ele>213.99999999999997</ele><time>2026-05-01T09:16:11.829Z</time></trkpt><trkpt lat="40.903296379876316" lon="8.735930199698194"><ele>214.0</ele><time>2026-05-01T09:16:13.829Z</time></trkpt><trkpt lat="40.90338677639467" lon="8.735959696457982"><ele>211.99999999999997</ele><time>2026-05-01T09:16:15.829Z</time></trkpt><trkpt lat="40.90346889638959" lon="8.735999569467392"><ele>210.0</ele><time>2026-05-01T09:16:17.829Z</time></trkpt><trkpt lat="40.90354492798094" lon="8.736059020627886"><ele>208.0</ele><time>2026-05-01T09:16:20.829Z</time></trkpt><trkpt lat="40.90362160656211" lon="8.736030263706114"><ele>206.0</ele><time>2026-05-01T09:16:22.829Z</time></trkpt><trkpt lat="40.90371581498882" lon="8.736006604785269"><ele>203.99999999999997</ele><time>2026-05-01T09:16:24.829Z</time></trkpt><trkpt lat="40.90378748312948" lon="8.73604021596626"><ele>202.0</ele><time>2026-05-01T09:16:26.829Z</time></trkpt><trkpt lat="40.90385405238075" lon="8.736078315154973"><ele>202.0</ele><time>2026-05-01T09:16:28.829Z</time></trkpt><trkpt lat="40.90391109171449" lon="8.736117726293804"><ele>202.0</ele><time>2026-05-01T09:16:31.829Z</time></trkpt><trkpt lat="40.90397748108758" lon="8.736140633888247"><ele>202.0</ele><time>2026-05-01T09:16:33.829Z</time></trkpt><trkpt lat="40.90407617594397" lon="8.736154776078621"><ele>202.0</ele><time>2026-05-01T09:16:35.829Z</time></trkpt><trkpt lat="40.904194185517945" lon="8.736179926984061"><ele>202.0</ele><time>2026-05-01T09:16:37.829Z</time></trkpt><trkpt lat="40.9042962473119" lon="8.736240547840474"><ele>200.33333333333331</ele><time>2026-05-01T09:16:39.829Z</time></trkpt><trkpt lat="40.90438225670592" lon="8.736293611714428"><ele>198.66666666666666</ele><time>2026-05-01T09:16:41.829Z</time></trkpt><trkpt lat="40.90444924664775" lon="8.736350548715263"><ele>197.0</ele><time>2026-05-01T09:16:43.829Z</time></trkpt><trkpt lat="40.904516033662944" lon="8.736395565810577"><ele>195.33333333333331</ele><time>2026-05-01T09:16:45.829Z</time></trkpt><trkpt lat="40.90457972668443" lon="8.736466923299366"><ele>193.66666666666666</ele><time>2026-05-01T09:16:47.829Z</time></trkpt><trkpt lat="40.9046576137204" lon="8.736518447098701"><ele>192.0</ele><time>2026-05-01T09:16:49.828Z</time></trkpt><trkpt lat="40.90474685878979" lon="8.736535792862924"><ele>192.0</ele><time>2026-05-01T09:16:51.828Z</time></trkpt><trkpt lat="40.904840367035376" lon="8.736569620930762"><ele>192.0</ele><time>2026-05-01T09:16:53.828Z</time></trkpt><trkpt lat="40.90491783368199" lon="8.736600053406951"><ele>192.0</ele><time>2026-05-01T09:16:54.828Z</time></trkpt><trkpt lat="40.90498184722841" lon="8.736631583896957"><ele>192.0</ele><time>2026-05-01T09:16:55.828Z</time></trkpt><trkpt lat="40.90508901079658" lon="8.73665825034328"><ele>192.0</ele><time>2026-05-01T09:16:57.828Z</time></trkpt><trkpt lat="40.905177708233545" lon="8.736707059505576"><ele>192.83333333333334</ele><time>2026-05-01T09:16:59.828Z</time></trkpt><trkpt lat="40.90525133307073" lon="8.736680748230635"><ele>193.66666666666669</ele><time>2026-05-01T09:17:10.827Z</time></trkpt><trkpt lat="40.905172961994175" lon="8.736707310405956"><ele>194.5</ele><time>2026-05-01T09:17:32.826Z</time></trkpt><trkpt lat="40.90512832200364" lon="8.73663820997493"><ele>195.33333333333334</ele><time>2026-05-01T09:17:36.826Z</time></trkpt><trkpt lat="40.9051597220102" lon="8.736564716983372"><ele>196.16666666666669</ele><time>2026-05-01T09:17:38.826Z</time></trkpt><trkpt lat="40.90518866399161" lon="8.736413921712447"><ele>197.0</ele><time>2026-05-01T09:17:40.826Z</time></trkpt><trkpt lat="40.90520293552881" lon="8.736266342542761"><ele>197.0</ele><time>2026-05-01T09:17:42.826Z</time></trkpt><trkpt lat="40.905209768847406" lon="8.736122297479808"><ele>197.0</ele><time>2026-05-01T09:17:44.826Z</time></trkpt><trkpt lat="40.90522330816852" lon="8.735982545818963"><ele>197.0</ele><time>2026-05-01T09:17:46.826Z</time></trkpt><trkpt lat="40.90523418017484" lon="8.735899687852484"><ele>197.0</ele><time>2026-05-01T09:17:47.826Z</time></trkpt><trkpt lat="40.9052422743123" lon="8.735739132196642"><ele>197.0</ele><time>2026-05-01T09:17:49.826Z</time></trkpt><trkpt lat="40.905244081396134" lon="8.735636888641059"><ele>196.50000000000003</ele><time>2026-05-01T09:17:51.826Z</time></trkpt><trkpt lat="40.90523060398444" lon="8.735504999128477"><ele>196.0</ele><time>2026-05-01T09:17:54.825Z</time></trkpt><trkpt lat="40.905241184466455" lon="8.735388605341626"><ele>195.5</ele><time>2026-05-01T09:17:56.825Z</time></trkpt><trkpt lat="40.90526225056763" lon="8.73528286800979"><ele>195.0</ele><time>2026-05-01T09:17:58.825Z</time></trkpt><trkpt lat="40.9052818936945" lon="8.735183146195082"><ele>194.50000000000003</ele><time>2026-05-01T09:18:00.825Z</time></trkpt><trkpt lat="40.90528807361207" lon="8.735079309117035"><ele>194.0</ele><time>2026-05-01T09:18:02.825Z</time></trkpt><trkpt lat="40.90527615356523" lon="8.734959042614108"><ele>192.66666666666669</ele><time>2026-05-01T09:18:04.825Z</time></trkpt><trkpt lat="40.90528225755475" lon="8.734861335779254"><ele>191.33333333333334</ele><time>2026-05-01T09:18:06.825Z</time></trkpt><trkpt lat="40.905296323937414" lon="8.734764375880546"><ele>190.0</ele><time>2026-05-01T09:18:08.825Z</time></trkpt><trkpt lat="40.90529755949952" lon="8.73465343799868"><ele>188.66666666666669</ele><time>2026-05-01T09:18:10.825Z</time></trkpt><trkpt lat="40.905298596471916" lon="8.734527253575404"><ele>187.33333333333334</ele><time>2026-05-01T09:18:12.825Z</time></trkpt><trkpt lat="40.90529313640396" lon="8.734397750268208"><ele>186.0</ele><time>2026-05-01T09:18:14.825Z</time></trkpt><trkpt lat="40.90527811080473" lon="8.734288435746874"><ele>184.60000000000002</ele><time>2026-05-01T09:18:16.825Z</time></trkpt><trkpt lat="40.905265014497736" lon="8.73418001465822"><ele>183.2</ele><time>2026-05-01T09:18:18.825Z</time></trkpt><trkpt lat="40.90526459884913" lon="8.73405617669536"><ele>181.8</ele><time>2026-05-01T09:18:20.825Z</time></trkpt><trkpt lat="40.9052713188733" lon="8.733927369119659"><ele>180.39999999999998</ele><time>2026-05-01T09:18:22.825Z</time></trkpt><trkpt lat="40.90527859997438" lon="8.733787275881912"><ele>179.0</ele><time>2026-05-01T09:18:24.825Z</time></trkpt><trkpt lat="40.90528244728662" lon="8.73362977798223"><ele>178.71428571428572</ele><time>2026-05-01T09:18:26.825Z</time></trkpt><trkpt lat="40.905274713279816" lon="8.73353805199933"><ele>178.42857142857144</ele><time>2026-05-01T09:18:27.825Z</time></trkpt><trkpt lat="40.905265357218035" lon="8.733448413248523"><ele>178.14285714285717</ele><time>2026-05-01T09:18:28.825Z</time></trkpt><trkpt lat="40.90525973264698" lon="8.733361199135395"><ele>177.85714285714286</ele><time>2026-05-01T09:18:29.825Z</time></trkpt><trkpt lat="40.905250516130074" lon="8.733210852759322"><ele>177.57142857142856</ele><time>2026-05-01T09:18:31.825Z</time></trkpt><trkpt lat="40.90523942135544" lon="8.733126156792611"><ele>177.2857142857143</ele><time>2026-05-01T09:18:32.825Z</time></trkpt><trkpt lat="40.905228155477694" lon="8.7330437784961"><ele>177.0</ele><time>2026-05-01T09:18:33.825Z</time></trkpt><trkpt lat="40.905209837706686" lon="8.732924761570183"><ele>177.0</ele><time>2026-05-01T09:18:34.825Z</time></trkpt><trkpt lat="40.90517599021789" lon="8.732834672606659"><ele>177.0</ele><time>2026-05-01T09:18:35.825Z</time></trkpt><trkpt lat="40.905151222724044" lon="8.732750582693084"><ele>177.0</ele><time>2026-05-01T09:18:36.825Z</time></trkpt><trkpt lat="40.9051276487278" lon="8.732651524987187"><ele>177.0</ele><time>2026-05-01T09:18:37.825Z</time></trkpt><trkpt lat="40.90510626567141" lon="8.732552378531745"><ele>177.0</ele><time>2026-05-01T09:18:38.825Z</time></trkpt><trkpt lat="40.90506320860497" lon="8.732417146225849"><ele>177.0</ele><time>2026-05-01T09:18:40.825Z</time></trkpt><trkpt lat="40.90502448285912" lon="8.732338624860429"><ele>174.14285714285714</ele><time>2026-05-01T09:18:41.825Z</time></trkpt><trkpt lat="40.90498953166285" lon="8.732249342447401"><ele>171.28571428571428</ele><time>2026-05-01T09:18:42.825Z</time></trkpt><trkpt lat="40.90497780430828" lon="8.732166362175112"><ele>168.42857142857142</ele><time>2026-05-01T09:18:43.825Z</time></trkpt><trkpt lat="40.90496353005321" lon="8.732068953528534"><ele>165.57142857142856</ele><time>2026-05-01T09:18:44.825Z</time></trkpt><trkpt lat="40.90495002317974" lon="8.731969160328987"><ele>162.71428571428572</ele><time>2026-05-01T09:18:45.825Z</time></trkpt><trkpt lat="40.90495227516401" lon="8.731867201043952"><ele>159.85714285714283</ele><time>2026-05-01T09:18:46.825Z</time></trkpt><trkpt lat="40.90494523965313" lon="8.731771138546161"><ele>157.0</ele><time>2026-05-01T09:18:47.825Z</time></trkpt><trkpt lat="40.90494597082554" lon="8.731657212082814"><ele>157.0</ele><time>2026-05-01T09:18:48.825Z</time></trkpt><trkpt lat="40.90495149890477" lon="8.731533068664993"><ele>157.0</ele><time>2026-05-01T09:18:49.825Z</time></trkpt><trkpt lat="40.90494505074655" lon="8.731409775910278"><ele>157.0</ele><time>2026-05-01T09:18:50.825Z</time></trkpt><trkpt lat="40.90493890571663" lon="8.73128352512521"><ele>157.0</ele><time>2026-05-01T09:18:51.825Z</time></trkpt><trkpt lat="40.904924809590845" lon="8.731153779625208"><ele>157.0</ele><time>2026-05-01T09:18:52.825Z</time></trkpt><trkpt lat="40.90493548131362" lon="8.73105070183309"><ele>157.0</ele><time>2026-05-01T09:18:53.825Z</time></trkpt><trkpt lat="40.90494281509877" lon="8.730929489733134"><ele>157.0</ele><time>2026-05-01T09:18:54.825Z</time></trkpt><trkpt lat="40.90494480807554" lon="8.730815031273517"><ele>157.0</ele><time>2026-05-01T09:18:55.825Z</time></trkpt><trkpt lat="40.904959518424185" lon="8.730693835766715"><ele>157.0</ele><time>2026-05-01T09:18:56.825Z</time></trkpt><trkpt lat="40.90497089495985" lon="8.730584207421844"><ele>157.0</ele><time>2026-05-01T09:18:57.825Z</time></trkpt><trkpt lat="40.90496013357007" lon="8.73048054520126"><ele>157.0</ele><time>2026-05-01T09:18:58.825Z</time></trkpt><trkpt lat="40.90493306565305" lon="8.730367562537515"><ele>157.0</ele><time>2026-05-01T09:18:59.825Z</time></trkpt><trkpt lat="40.90491433424945" lon="8.730236897953064"><ele>157.0</ele><time>2026-05-01T09:19:00.825Z</time></trkpt><trkpt lat="40.90490148114934" lon="8.730117508108671"><ele>157.0</ele><time>2026-05-01T09:19:01.825Z</time></trkpt><trkpt lat="40.90488506544706" lon="8.730008285815098"><ele>157.0</ele><time>2026-05-01T09:19:02.825Z</time></trkpt><trkpt lat="40.90487139411702" lon="8.729893682648445"><ele>157.0</ele><time>2026-05-01T09:19:03.825Z</time></trkpt><trkpt lat="40.90486806057229" lon="8.729806734304658"><ele>157.0</ele><time>2026-05-01T09:19:04.825Z</time></trkpt><trkpt lat="40.90489374997239" lon="8.729671602883904"><ele>156.79999999999998</ele><time>2026-05-01T09:19:06.824Z</time></trkpt><trkpt lat="40.90494119921499" lon="8.729581244548061"><ele>156.6</ele><time>2026-05-01T09:19:08.824Z</time></trkpt><trkpt lat="40.90505798708533" lon="8.729482384305102"><ele>156.39999999999998</ele><time>2026-05-01T09:19:10.824Z</time></trkpt><trkpt lat="40.905105895457446" lon="8.729400029774235"><ele>156.2</ele><time>2026-05-01T09:19:11.824Z</time></trkpt><trkpt lat="40.90515997785263" lon="8.729308079408032"><ele>156.0</ele><time>2026-05-01T09:19:12.824Z</time></trkpt><trkpt lat="40.90520028302982" lon="8.729198630903642"><ele>158.0</ele><time>2026-05-01T09:19:13.823Z</time></trkpt><trkpt lat="40.90523653276014" lon="8.729118845043555"><ele>160.0</ele><time>2026-05-01T09:19:14.822Z</time></trkpt><trkpt lat="40.90528753471848" lon="8.729054319495926"><ele>162.0</ele><time>2026-05-01T09:19:15.822Z</time></trkpt><trkpt lat="40.90533174678158" lon="8.728993342688328"><ele>164.0</ele><time>2026-05-01T09:19:16.822Z</time></trkpt><trkpt lat="40.905402260615915" lon="8.72889518430761"><ele>166.0</ele><time>2026-05-01T09:19:18.822Z</time></trkpt><trkpt lat="40.90549637647111" lon="8.728760796037845"><ele>168.0</ele><time>2026-05-01T09:19:20.822Z</time></trkpt><trkpt lat="40.905548374768486" lon="8.728672803308767"><ele>168.0</ele><time>2026-05-01T09:19:21.822Z</time></trkpt><trkpt lat="40.905594986183424" lon="8.728584213124392"><ele>168.0</ele><time>2026-05-01T09:19:22.822Z</time></trkpt><trkpt lat="40.90562446110011" lon="8.72848951754169"><ele>168.0</ele><time>2026-05-01T09:19:23.822Z</time></trkpt><trkpt lat="40.905646320019876" lon="8.72840856496981"><ele>168.0</ele><time>2026-05-01T09:19:24.822Z</time></trkpt><trkpt lat="40.90570956224079" lon="8.728312500066925"><ele>168.0</ele><time>2026-05-01T09:19:26.822Z</time></trkpt><trkpt lat="40.90580061177708" lon="8.728244962111114"><ele>168.0</ele><time>2026-05-01T09:19:28.822Z</time></trkpt><trkpt lat="40.90590541209481" lon="8.728187954760045"><ele>164.0</ele><time>2026-05-01T09:19:30.822Z</time></trkpt><trkpt lat="40.90599265224868" lon="8.728124135556111"><ele>160.0</ele><time>2026-05-01T09:19:32.822Z</time></trkpt><trkpt lat="40.9060588018502" lon="8.728085547185197"><ele>156.0</ele><time>2026-05-01T09:19:34.822Z</time></trkpt><trkpt lat="40.90613362334459" lon="8.728063345864431"><ele>152.0</ele><time>2026-05-01T09:19:36.822Z</time></trkpt><trkpt lat="40.90623102932293" lon="8.728048928977787"><ele>148.0</ele><time>2026-05-01T09:19:38.822Z</time></trkpt><trkpt lat="40.90632515037978" lon="8.728062739106946"><ele>144.0</ele><time>2026-05-01T09:19:40.822Z</time></trkpt><trkpt lat="40.90643276901136" lon="8.728067373567205"><ele>144.0</ele><time>2026-05-01T09:19:42.822Z</time></trkpt><trkpt lat="40.90654644213294" lon="8.728059216252648"><ele>144.0</ele><time>2026-05-01T09:19:44.822Z</time></trkpt><trkpt lat="40.90665297306652" lon="8.728064198109749"><ele>144.0</ele><time>2026-05-01T09:19:46.822Z</time></trkpt><trkpt lat="40.906737139358455" lon="8.728059167736559"><ele>144.0</ele><time>2026-05-01T09:19:48.822Z</time></trkpt><trkpt lat="40.90682745096392" lon="8.728029251038448"><ele>144.0</ele><time>2026-05-01T09:19:50.822Z</time></trkpt><trkpt lat="40.90692048350996" lon="8.7279967407752"><ele>143.00000000000003</ele><time>2026-05-01T09:19:52.822Z</time></trkpt><trkpt lat="40.90699095515017" lon="8.727961317592328"><ele>142.0</ele><time>2026-05-01T09:19:53.822Z</time></trkpt><trkpt lat="40.90706242228376" lon="8.727920663261585"><ele>141.0</ele><time>2026-05-01T09:19:54.822Z</time></trkpt><trkpt lat="40.90713061970194" lon="8.72788056628039"><ele>140.0</ele><time>2026-05-01T09:19:55.822Z</time></trkpt><trkpt lat="40.90720010939787" lon="8.727842979133499"><ele>139.0</ele><time>2026-05-01T09:19:56.822Z</time></trkpt><trkpt lat="40.907257347669" lon="8.727800862643479"><ele>138.00000000000003</ele><time>2026-05-01T09:19:57.822Z</time></trkpt><trkpt lat="40.907324601881406" lon="8.727764901420283"><ele>137.0</ele><time>2026-05-01T09:19:58.822Z</time></trkpt><trkpt lat="40.90742590658653" lon="8.727678409786764"><ele>134.0</ele><time>2026-05-01T09:20:00.822Z</time></trkpt><trkpt lat="40.90752766192652" lon="8.727599281602528"><ele>131.0</ele><time>2026-05-01T09:20:02.822Z</time></trkpt><trkpt lat="40.90759555680547" lon="8.727555360997735"><ele>128.0</ele><time>2026-05-01T09:20:04.822Z</time></trkpt><trkpt lat="40.90765064549402" lon="8.72750736389944"><ele>125.0</ele><time>2026-05-01T09:20:06.822Z</time></trkpt><trkpt lat="40.907725272909346" lon="8.727453538582655"><ele>121.99999999999999</ele><time>2026-05-01T09:20:09.822Z</time></trkpt><trkpt lat="40.907789630354046" lon="8.72745512211772"><ele>119.0</ele><time>2026-05-01T09:20:11.822Z</time></trkpt><trkpt lat="40.90786650818495" lon="8.727448756679436"><ele>117.49999999999999</ele><time>2026-05-01T09:20:13.822Z</time></trkpt><trkpt lat="40.907937135575054" lon="8.727464676108049"><ele>116.0</ele><time>2026-05-01T09:20:15.821Z</time></trkpt><trkpt lat="40.908012522328946" lon="8.727487612074514"><ele>114.5</ele><time>2026-05-01T09:20:17.821Z</time></trkpt><trkpt lat="40.90807927783533" lon="8.72749033359477"><ele>113.0</ele><time>2026-05-01T09:20:19.821Z</time></trkpt><trkpt lat="40.908170278284764" lon="8.727496801138704"><ele>111.49999999999999</ele><time>2026-05-01T09:20:22.821Z</time></trkpt><trkpt lat="40.908255848666684" lon="8.727476228052113"><ele>110.0</ele><time>2026-05-01T09:20:25.821Z</time></trkpt><trkpt lat="40.90834668130221" lon="8.727482264436278"><ele>107.33333333333333</ele><time>2026-05-01T09:20:28.821Z</time></trkpt><trkpt lat="40.908418342069496" lon="8.727484133226246"><ele>104.66666666666666</ele><time>2026-05-01T09:20:31.821Z</time></trkpt><trkpt lat="40.90849298197541" lon="8.72749135137138"><ele>102.0</ele><time>2026-05-01T09:20:36.821Z</time></trkpt><trkpt lat="40.90856785513913" lon="8.727501246468703"><ele>99.33333333333333</ele><time>2026-05-01T09:20:40.821Z</time></trkpt><trkpt lat="40.90864013429401" lon="8.727522668671892"><ele>96.66666666666666</ele><time>2026-05-01T09:20:44.821Z</time></trkpt><trkpt lat="40.908704017556055" lon="8.727535975935153"><ele>94.0</ele><time>2026-05-01T09:20:46.821Z</time></trkpt><trkpt lat="40.908810256747174" lon="8.727537211220206"><ele>94.0</ele><time>2026-05-01T09:20:48.821Z</time></trkpt><trkpt lat="40.9089183059226" lon="8.727504333814347"><ele>94.0</ele><time>2026-05-01T09:20:50.821Z</time></trkpt><trkpt lat="40.90898092568999" lon="8.727494990228484"><ele>94.0</ele><time>2026-05-01T09:20:53.821Z</time></trkpt><trkpt lat="40.90910071779093" lon="8.727526317233675"><ele>94.0</ele><time>2026-05-01T09:20:55.821Z</time></trkpt><trkpt lat="40.909181285068485" lon="8.727558023508847"><ele>94.0</ele><time>2026-05-01T09:20:56.821Z</time></trkpt><trkpt lat="40.90926055671497" lon="8.72757791873016"><ele>94.0</ele><time>2026-05-01T09:20:57.821Z</time></trkpt><trkpt lat="40.90934643664281" lon="8.727600647006335"><ele>94.0</ele><time>2026-05-01T09:20:58.821Z</time></trkpt><trkpt lat="40.909444596334005" lon="8.727646408029592"><ele>94.0</ele><time>2026-05-01T09:21:00.821Z</time></trkpt><trkpt lat="40.90951930969577" lon="8.727665493900345"><ele>94.0</ele><time>2026-05-01T09:21:03.821Z</time></trkpt><trkpt lat="40.90958867884084" lon="8.727700736213835"><ele>94.0</ele><time>2026-05-01T09:21:06.821Z</time></trkpt><trkpt lat="40.909661688304446" lon="8.727719645661203"><ele>94.0</ele><time>2026-05-01T09:21:09.821Z</time></trkpt><trkpt lat="40.909735709231946" lon="8.727765111392362"><ele>94.0</ele><time>2026-05-01T09:21:11.821Z</time></trkpt><trkpt lat="40.90981745928729" lon="8.72781645606123"><ele>94.0</ele><time>2026-05-01T09:21:13.821Z</time></trkpt><trkpt lat="40.90990910878471" lon="8.727903145145024"><ele>94.0</ele><time>2026-05-01T09:21:15.821Z</time></trkpt><trkpt lat="40.90996509754059" lon="8.727949899809389"><ele>94.0</ele><time>2026-05-01T09:21:16.821Z</time></trkpt><trkpt lat="40.910020836976045" lon="8.727994676569532"><ele>94.0</ele><time>2026-05-01T09:21:17.821Z</time></trkpt><trkpt lat="40.91010387281906" lon="8.728058585288531"><ele>94.0</ele><time>2026-05-01T09:21:19.819Z</time></trkpt><trkpt lat="40.91010801561093" lon="8.72815520261359"><ele>94.0</ele><time>2026-05-01T09:21:21.818Z</time></trkpt><trkpt lat="40.9100775449683" lon="8.728262047672901"><ele>94.0</ele><time>2026-05-01T09:21:23.818Z</time></trkpt><trkpt lat="40.91003447749946" lon="8.728345255824431"><ele>94.0</ele><time>2026-05-01T09:21:25.818Z</time></trkpt><trkpt lat="40.910016443225096" lon="8.728476944455096"><ele>94.0</ele><time>2026-05-01T09:21:27.818Z</time></trkpt><trkpt lat="40.91001953596759" lon="8.728619866370463"><ele>94.0</ele><time>2026-05-01T09:21:29.818Z</time></trkpt><trkpt lat="40.910011505340854" lon="8.72870292701724"><ele>94.0</ele><time>2026-05-01T09:21:30.818Z</time></trkpt><trkpt lat="40.91000682160612" lon="8.728809466086508"><ele>94.66666666666666</ele><time>2026-05-01T09:21:32.817Z</time></trkpt><trkpt lat="40.90999120517089" lon="8.728925904497189"><ele>95.33333333333333</ele><time>2026-05-01T09:21:34.817Z</time></trkpt><trkpt lat="40.90997655714041" lon="8.729013291725197"><ele>96.0</ele><time>2026-05-01T09:21:36.817Z</time></trkpt><trkpt lat="40.90997165523011" lon="8.729100945148826"><ele>96.66666666666666</ele><time>2026-05-01T09:21:39.817Z</time></trkpt><trkpt lat="40.910007878280446" lon="8.728984815466138"><ele>97.33333333333333</ele><time>2026-05-01T09:21:57.817Z</time></trkpt><trkpt lat="40.91002268909334" lon="8.728838410917266"><ele>98.0</ele><time>2026-05-01T09:21:59.817Z</time></trkpt><trkpt lat="40.91003294615358" lon="8.728691004510756"><ele>97.2</ele><time>2026-05-01T09:22:01.817Z</time></trkpt><trkpt lat="40.91004222849656" lon="8.728549383906213"><ele>96.4</ele><time>2026-05-01T09:22:03.817Z</time></trkpt><trkpt lat="40.91003587634787" lon="8.728405335176362"><ele>95.60000000000001</ele><time>2026-05-01T09:22:05.817Z</time></trkpt><trkpt lat="40.910065822109324" lon="8.728283468091215"><ele>94.80000000000001</ele><time>2026-05-01T09:22:07.817Z</time></trkpt><trkpt lat="40.910118423904805" lon="8.728152048535799"><ele>94.0</ele><time>2026-05-01T09:22:09.817Z</time></trkpt><trkpt lat="40.910120628727874" lon="8.728064647774021"><ele>94.0</ele><time>2026-05-01T09:22:11.817Z</time></trkpt><trkpt lat="40.91007544257422" lon="8.728004150269241"><ele>94.0</ele><time>2026-05-01T09:22:19.817Z</time></trkpt><trkpt lat="40.91002105981295" lon="8.727954021772826"><ele>94.0</ele><time>2026-05-01T09:22:21.817Z</time></trkpt><trkpt lat="40.90994845838114" lon="8.727902095316882"><ele>94.0</ele><time>2026-05-01T09:22:23.817Z</time></trkpt><trkpt lat="40.90988466143737" lon="8.727855417541566"><ele>94.0</ele><time>2026-05-01T09:22:25.817Z</time></trkpt><trkpt lat="40.90995096320315" lon="8.727932991241122"><ele>94.0</ele><time>2026-05-01T09:22:38.817Z</time></trkpt><trkpt lat="40.91004253672079" lon="8.727996507264859"><ele>94.0</ele><time>2026-05-01T09:22:40.817Z</time></trkpt><trkpt lat="40.910144811407704" lon="8.728059343557792"><ele>94.0</ele><time>2026-05-01T09:22:42.817Z</time></trkpt><trkpt lat="40.9102103713182" lon="8.72807622492891"><ele>94.0</ele><time>2026-05-01T09:22:44.816Z</time></trkpt><trkpt lat="40.91023846029709" lon="8.727988797062121"><ele>94.0</ele><time>2026-05-01T09:22:50.816Z</time></trkpt><trkpt lat="40.91026248698811" lon="8.727841803875851"><ele>94.0</ele><time>2026-05-01T09:22:52.816Z</time></trkpt><trkpt lat="40.91027999325571" lon="8.72775282092193"><ele>94.0</ele><time>2026-05-01T09:22:53.816Z</time></trkpt><trkpt lat="40.91029804741388" lon="8.727666436897813"><ele>92.42857142857143</ele><time>2026-05-01T09:22:54.816Z</time></trkpt><trkpt lat="40.910324332776604" lon="8.727584912108085"><ele>90.85714285714286</ele><time>2026-05-01T09:22:55.816Z</time></trkpt><trkpt lat="40.91036527767086" lon="8.727508748585434"><ele>89.28571428571428</ele><time>2026-05-01T09:22:56.816Z</time></trkpt><trkpt lat="40.91040708941656" lon="8.727431029357595"><ele>87.71428571428572</ele><time>2026-05-01T09:22:57.816Z</time></trkpt><trkpt lat="40.91045845816132" lon="8.72736589553254"><ele>86.14285714285715</ele><time>2026-05-01T09:22:58.816Z</time></trkpt><trkpt lat="40.910503947889765" lon="8.72729619140517"><ele>84.57142857142857</ele><time>2026-05-01T09:22:59.816Z</time></trkpt><trkpt lat="40.91056367591473" lon="8.727205978644198"><ele>83.0</ele><time>2026-05-01T09:23:01.816Z</time></trkpt><trkpt lat="40.91062791597578" lon="8.727157108582395"><ele>83.0</ele><time>2026-05-01T09:23:05.816Z</time></trkpt><trkpt lat="40.91069544346138" lon="8.727203709328426"><ele>83.0</ele><time>2026-05-01T09:23:11.816Z</time></trkpt><trkpt lat="40.91072615455228" lon="8.727329403702756"><ele>83.0</ele><time>2026-05-01T09:23:13.816Z</time></trkpt><trkpt lat="40.91075814290265" lon="8.727465700156719"><ele>83.0</ele><time>2026-05-01T09:23:15.816Z</time></trkpt><trkpt lat="40.910818596416405" lon="8.727492214353022"><ele>83.0</ele><time>2026-05-01T09:23:18.816Z</time></trkpt><trkpt lat="40.91086475326551" lon="8.727384429424857"><ele>83.0</ele><time>2026-05-01T09:23:21.816Z</time></trkpt><trkpt lat="40.91087020785815" lon="8.72721588644404"><ele>83.0</ele><time>2026-05-01T09:23:23.816Z</time></trkpt><trkpt lat="40.910879560251985" lon="8.727091493450724"><ele>83.0</ele><time>2026-05-01T09:23:24.816Z</time></trkpt><trkpt lat="40.91089960575354" lon="8.726970719692272"><ele>83.0</ele><time>2026-05-01T09:23:25.814Z</time></trkpt><trkpt lat="40.91094007133789" lon="8.726847565880277"><ele>83.0</ele><time>2026-05-01T09:23:26.814Z</time></trkpt><trkpt lat="40.91100321227475" lon="8.726721672320576"><ele>83.0</ele><time>2026-05-01T09:23:27.814Z</time></trkpt><trkpt lat="40.91108805773897" lon="8.726610067070952"><ele>78.60000000000001</ele><time>2026-05-01T09:23:28.813Z</time></trkpt><trkpt lat="40.91117899137612" lon="8.726521168396877"><ele>74.2</ele><time>2026-05-01T09:23:29.813Z</time></trkpt><trkpt lat="40.91127287348991" lon="8.726448237632225"><ele>69.8</ele><time>2026-05-01T09:23:30.813Z</time></trkpt><trkpt lat="40.91134968611043" lon="8.72637323619109"><ele>65.4</ele><time>2026-05-01T09:23:31.813Z</time></trkpt><trkpt lat="40.9114258849789" lon="8.726279667071612"><ele>61.0</ele><time>2026-05-01T09:23:32.814Z</time></trkpt><trkpt lat="40.91147625081208" lon="8.726169555533716"><ele>61.8</ele><time>2026-05-01T09:23:33.814Z</time></trkpt><trkpt lat="40.91151778756469" lon="8.726048105492453"><ele>62.599999999999994</ele><time>2026-05-01T09:23:34.814Z</time></trkpt><trkpt lat="40.91153004875055" lon="8.725932558344672"><ele>63.4</ele><time>2026-05-01T09:23:35.814Z</time></trkpt><trkpt lat="40.911539427339214" lon="8.725790624935065"><ele>64.2</ele><time>2026-05-01T09:23:36.814Z</time></trkpt><trkpt lat="40.91153641464018" lon="8.725641245777718"><ele>65.0</ele><time>2026-05-01T09:23:37.813Z</time></trkpt><trkpt lat="40.91153342407993" lon="8.725500726556572"><ele>65.0</ele><time>2026-05-01T09:23:38.813Z</time></trkpt><trkpt lat="40.91152554837264" lon="8.725355459154684"><ele>65.0</ele><time>2026-05-01T09:23:39.813Z</time></trkpt><trkpt lat="40.91151039847067" lon="8.725206643264892"><ele>65.0</ele><time>2026-05-01T09:23:40.813Z</time></trkpt><trkpt lat="40.911504645836764" lon="8.725067345069158"><ele>65.0</ele><time>2026-05-01T09:23:41.813Z</time></trkpt><trkpt lat="40.91149779027631" lon="8.724924981137292"><ele>65.0</ele><time>2026-05-01T09:23:42.813Z</time></trkpt><trkpt lat="40.91148859929063" lon="8.724783247007904"><ele>64.2</ele><time>2026-05-01T09:23:43.813Z</time></trkpt><trkpt lat="40.91147684694781" lon="8.724649175858953"><ele>63.4</ele><time>2026-05-01T09:23:44.813Z</time></trkpt><trkpt lat="40.91145570952257" lon="8.724520718919232"><ele>62.599999999999994</ele><time>2026-05-01T09:23:45.813Z</time></trkpt><trkpt lat="40.91143605133537" lon="8.724393249923986"><ele>61.8</ele><time>2026-05-01T09:23:46.813Z</time></trkpt><trkpt lat="40.911374732101244" lon="8.724304947245773"><ele>61.0</ele><time>2026-05-01T09:23:47.813Z</time></trkpt><trkpt lat="40.9113048706258" lon="8.724215971452475"><ele>59.4</ele><time>2026-05-01T09:23:48.813Z</time></trkpt><trkpt lat="40.911229326352654" lon="8.72414789996433"><ele>57.8</ele><time>2026-05-01T09:23:49.813Z</time></trkpt><trkpt lat="40.911148416722725" lon="8.724074647555124"><ele>56.199999999999996</ele><time>2026-05-01T09:23:50.813Z</time></trkpt><trkpt lat="40.91108118556982" lon="8.723991400774308"><ele>54.599999999999994</ele><time>2026-05-01T09:23:51.813Z</time></trkpt><trkpt lat="40.91103214671363" lon="8.723891837474898"><ele>53.0</ele><time>2026-05-01T09:23:52.813Z</time></trkpt><trkpt lat="40.910996855994654" lon="8.723769813644845"><ele>53.0</ele><time>2026-05-01T09:23:53.813Z</time></trkpt><trkpt lat="40.910986935378354" lon="8.72364484890236"><ele>53.0</ele><time>2026-05-01T09:23:54.813Z</time></trkpt><trkpt lat="40.91100801776882" lon="8.72351873351718"><ele>53.0</ele><time>2026-05-01T09:23:55.813Z</time></trkpt><trkpt lat="40.911039004567456" lon="8.723380318591838"><ele>53.0</ele><time>2026-05-01T09:23:56.813Z</time></trkpt><trkpt lat="40.91107155136087" lon="8.723242260599191"><ele>53.0</ele><time>2026-05-01T09:23:57.813Z</time></trkpt><trkpt lat="40.91109798629798" lon="8.723095940450548"><ele>52.5</ele><time>2026-05-01T09:23:58.813Z</time></trkpt><trkpt lat="40.91112424780156" lon="8.722939054658998"><ele>52.0</ele><time>2026-05-01T09:23:59.813Z</time></trkpt><trkpt lat="40.91116820367837" lon="8.722783576913775"><ele>51.5</ele><time>2026-05-01T09:24:00.813Z</time></trkpt><trkpt lat="40.911182575371065" lon="8.722613728125198"><ele>51.0</ele><time>2026-05-01T09:24:01.813Z</time></trkpt><trkpt lat="40.911192309123265" lon="8.722432064347247"><ele>51.0</ele><time>2026-05-01T09:24:02.813Z</time></trkpt><trkpt lat="40.911203694802076" lon="8.72224730749352"><ele>51.0</ele><time>2026-05-01T09:24:03.813Z</time></trkpt><trkpt lat="40.91121632033385" lon="8.722052343087645"><ele>51.0</ele><time>2026-05-01T09:24:04.813Z</time></trkpt><trkpt lat="40.91123396185484" lon="8.721847606970123"><ele>51.0</ele><time>2026-05-01T09:24:05.813Z</time></trkpt><trkpt lat="40.91125420308032" lon="8.721655292748768"><ele>51.66666666666667</ele><time>2026-05-01T09:24:06.813Z</time></trkpt><trkpt lat="40.91127542351497" lon="8.721457428754261"><ele>52.333333333333336</ele><time>2026-05-01T09:24:07.813Z</time></trkpt><trkpt lat="40.911295532848506" lon="8.721256365426974"><ele>53.0</ele><time>2026-05-01T09:24:08.813Z</time></trkpt><trkpt lat="40.91131599410734" lon="8.721059868086222"><ele>53.75</ele><time>2026-05-01T09:24:09.813Z</time></trkpt><trkpt lat="40.91133560925914" lon="8.720866527898515"><ele>54.5</ele><time>2026-05-01T09:24:10.813Z</time></trkpt><trkpt lat="40.91135317967804" lon="8.720677859974073"><ele>55.25</ele><time>2026-05-01T09:24:11.813Z</time></trkpt><trkpt lat="40.911367735834276" lon="8.720500384525693"><ele>56.0</ele><time>2026-05-01T09:24:12.813Z</time></trkpt><trkpt lat="40.911381214494554" lon="8.720325242172203"><ele>55.5</ele><time>2026-05-01T09:24:13.813Z</time></trkpt><trkpt lat="40.911397390705474" lon="8.72016201041925"><ele>55.0</ele><time>2026-05-01T09:24:14.813Z</time></trkpt><trkpt lat="40.91141150750878" lon="8.720000580738114"><ele>54.5</ele><time>2026-05-01T09:24:15.813Z</time></trkpt><trkpt lat="40.91142574884432" lon="8.71984717526688"><ele>54.0</ele><time>2026-05-01T09:24:16.813Z</time></trkpt><trkpt lat="40.911436445437815" lon="8.719696171746207"><ele>54.0</ele><time>2026-05-01T09:24:17.813Z</time></trkpt><trkpt lat="40.91145087484338" lon="8.7195538458869"><ele>54.00000000000001</ele><time>2026-05-01T09:24:18.813Z</time></trkpt><trkpt lat="40.911457031777374" lon="8.719416390537994"><ele>54.00000000000001</ele><time>2026-05-01T09:24:19.813Z</time></trkpt><trkpt lat="40.91147086934846" lon="8.719295313187828"><ele>54.0</ele><time>2026-05-01T09:24:20.813Z</time></trkpt><trkpt lat="40.911478599741706" lon="8.719184418281111"><ele>54.0</ele><time>2026-05-01T09:24:21.813Z</time></trkpt><trkpt lat="40.91150450020812" lon="8.719092041122819"><ele>54.0</ele><time>2026-05-01T09:24:22.813Z</time></trkpt><trkpt lat="40.911551694796245" lon="8.719015181355827"><ele>54.0</ele><time>2026-05-01T09:24:23.813Z</time></trkpt><trkpt lat="40.91156955368752" lon="8.71892025096085"><ele>54.0</ele><time>2026-05-01T09:24:24.813Z</time></trkpt><trkpt lat="40.91156521105404" lon="8.71882770667081"><ele>54.0</ele><time>2026-05-01T09:24:25.813Z</time></trkpt><trkpt lat="40.91154243592055" lon="8.71874348459699"><ele>54.0</ele><time>2026-05-01T09:24:26.813Z</time></trkpt><trkpt lat="40.91154265623448" lon="8.718655712416648"><ele>54.0</ele><time>2026-05-01T09:24:27.813Z</time></trkpt><trkpt lat="40.911547950228744" lon="8.718557366403834"><ele>54.0</ele><time>2026-05-01T09:24:28.813Z</time></trkpt><trkpt lat="40.91156001331976" lon="8.718462734223388"><ele>54.0</ele><time>2026-05-01T09:24:29.813Z</time></trkpt><trkpt lat="40.91157200418612" lon="8.71836873834549"><ele>54.0</ele><time>2026-05-01T09:24:30.813Z</time></trkpt><trkpt lat="40.9115900680641" lon="8.718269141240716"><ele>54.0</ele><time>2026-05-01T09:24:31.813Z</time></trkpt><trkpt lat="40.91160939671922" lon="8.718165113428986"><ele>54.0</ele><time>2026-05-01T09:24:32.813Z</time></trkpt><trkpt lat="40.91163686844387" lon="8.71806118381248"><ele>54.0</ele><time>2026-05-01T09:24:33.812Z</time></trkpt><trkpt lat="40.91166549135951" lon="8.717955834869457"><ele>54.0</ele><time>2026-05-01T09:24:34.812Z</time></trkpt><trkpt lat="40.911697972109124" lon="8.717854955241595"><ele>54.0</ele><time>2026-05-01T09:24:35.812Z</time></trkpt><trkpt lat="40.91173494135101" lon="8.717763722489291"><ele>54.0</ele><time>2026-05-01T09:24:36.812Z</time></trkpt><trkpt lat="40.91178013184802" lon="8.71766714373883"><ele>54.0</ele><time>2026-05-01T09:24:37.812Z</time></trkpt><trkpt lat="40.91183498560745" lon="8.717575186775601"><ele>54.0</ele><time>2026-05-01T09:24:38.812Z</time></trkpt><trkpt lat="40.91189425438389" lon="8.717482532902498"><ele>54.0</ele><time>2026-05-01T09:24:39.812Z</time></trkpt><trkpt lat="40.911956669473796" lon="8.717393767078747"><ele>54.0</ele><time>2026-05-01T09:24:40.812Z</time></trkpt><trkpt lat="40.912021164435465" lon="8.71730455095009"><ele>52.0</ele><time>2026-05-01T09:24:41.812Z</time></trkpt><trkpt lat="40.91208457717738" lon="8.717216078291576"><ele>50.00000000000001</ele><time>2026-05-01T09:24:42.812Z</time></trkpt><trkpt lat="40.91214951306696" lon="8.71712830356345"><ele>48.0</ele><time>2026-05-01T09:24:43.812Z</time></trkpt><trkpt lat="40.912210898417534" lon="8.717038478538194"><ele>46.0</ele><time>2026-05-01T09:24:44.812Z</time></trkpt><trkpt lat="40.91227228198571" lon="8.716935806471222"><ele>44.0</ele><time>2026-05-01T09:24:45.812Z</time></trkpt><trkpt lat="40.912324564653815" lon="8.716817056480355"><ele>44.0</ele><time>2026-05-01T09:24:46.812Z</time></trkpt><trkpt lat="40.91237558937025" lon="8.7166906417913"><ele>44.0</ele><time>2026-05-01T09:24:47.812Z</time></trkpt><trkpt lat="40.91243929588243" lon="8.71657563439988"><ele>44.0</ele><time>2026-05-01T09:24:48.812Z</time></trkpt><trkpt lat="40.91247507449796" lon="8.71643934544152"><ele>44.0</ele><time>2026-05-01T09:24:49.812Z</time></trkpt><trkpt lat="40.912523697991006" lon="8.716314745256208"><ele>44.0</ele><time>2026-05-01T09:24:50.812Z</time></trkpt><trkpt lat="40.9125732445805" lon="8.71619776868184"><ele>39.5</ele><time>2026-05-01T09:24:51.812Z</time></trkpt><trkpt lat="40.91261793871579" lon="8.716062926274988"><ele>35.0</ele><time>2026-05-01T09:24:52.812Z</time></trkpt><trkpt lat="40.91264462879369" lon="8.715917636974744"><ele>30.5</ele><time>2026-05-01T09:24:53.812Z</time></trkpt><trkpt lat="40.912649082603494" lon="8.715770345641246"><ele>26.0</ele><time>2026-05-01T09:24:54.812Z</time></trkpt><trkpt lat="40.9126484742661" lon="8.715618912905194"><ele>26.0</ele><time>2026-05-01T09:24:55.812Z</time></trkpt><trkpt lat="40.91264554419363" lon="8.7154689555597"><ele>26.0</ele><time>2026-05-01T09:24:56.812Z</time></trkpt><trkpt lat="40.91264289114543" lon="8.715337056784607"><ele>26.0</ele><time>2026-05-01T09:24:57.812Z</time></trkpt><trkpt lat="40.91262625877359" lon="8.715224266327354"><ele>26.0</ele><time>2026-05-01T09:24:58.812Z</time></trkpt><trkpt lat="40.912628411129795" lon="8.71511203059437"><ele>26.0</ele><time>2026-05-01T09:24:59.812Z</time></trkpt><trkpt lat="40.91263016844131" lon="8.71499959117799"><ele>26.499999999999996</ele><time>2026-05-01T09:25:00.812Z</time></trkpt><trkpt lat="40.91262853818907" lon="8.714882564134257"><ele>27.0</ele><time>2026-05-01T09:25:01.812Z</time></trkpt><trkpt lat="40.912627780770215" lon="8.714762707660507"><ele>27.5</ele><time>2026-05-01T09:25:02.812Z</time></trkpt><trkpt lat="40.91263535857274" lon="8.714641459315786"><ele>28.0</ele><time>2026-05-01T09:25:03.812Z</time></trkpt><trkpt lat="40.91264805424727" lon="8.714529752619804"><ele>28.499999999999996</ele><time>2026-05-01T09:25:04.812Z</time></trkpt><trkpt lat="40.91265810037933" lon="8.714415344076953"><ele>29.0</ele><time>2026-05-01T09:25:05.812Z</time></trkpt><trkpt lat="40.912665776995986" lon="8.714301706766102"><ele>29.999999999999996</ele><time>2026-05-01T09:25:06.812Z</time></trkpt><trkpt lat="40.91267503689524" lon="8.714190957670644"><ele>31.0</ele><time>2026-05-01T09:25:07.812Z</time></trkpt><trkpt lat="40.91269132245844" lon="8.714080696087798"><ele>32.0</ele><time>2026-05-01T09:25:08.812Z</time></trkpt><trkpt lat="40.91270494377092" lon="8.713971349631695"><ele>33.0</ele><time>2026-05-01T09:25:09.812Z</time></trkpt><trkpt lat="40.91272089910745" lon="8.713849814355696"><ele>34.0</ele><time>2026-05-01T09:25:10.812Z</time></trkpt><trkpt lat="40.91273921188034" lon="8.7137279127608"><ele>35.0</ele><time>2026-05-01T09:25:11.812Z</time></trkpt><trkpt lat="40.912752276450284" lon="8.713607664976486"><ele>36.5</ele><time>2026-05-01T09:25:12.812Z</time></trkpt><trkpt lat="40.91277060667161" lon="8.713492626817363"><ele>38.0</ele><time>2026-05-01T09:25:13.812Z</time></trkpt><trkpt lat="40.91279661002829" lon="8.713382429453208"><ele>39.5</ele><time>2026-05-01T09:25:14.812Z</time></trkpt><trkpt lat="40.912813290110584" lon="8.713292766139782"><ele>41.0</ele><time>2026-05-01T09:25:15.812Z</time></trkpt><trkpt lat="40.91284378447379" lon="8.713186701706633"><ele>42.5</ele><time>2026-05-01T09:25:17.812Z</time></trkpt><trkpt lat="40.91290431941772" lon="8.713102258621365"><ele>44.0</ele><time>2026-05-01T09:25:19.812Z</time></trkpt><trkpt lat="40.91295437545427" lon="8.713017189897494"><ele>44.0</ele><time>2026-05-01T09:25:21.812Z</time></trkpt><trkpt lat="40.913020109067276" lon="8.712962768938667"><ele>44.0</ele><time>2026-05-01T09:25:24.812Z</time></trkpt><trkpt lat="40.9130914984862" lon="8.712897811659728"><ele>44.0</ele><time>2026-05-01T09:25:28.812Z</time></trkpt><trkpt lat="40.913161764042854" lon="8.712862855354475"><ele>44.0</ele><time>2026-05-01T09:25:30.812Z</time></trkpt><trkpt lat="40.91323414199643" lon="8.712838917102395"><ele>44.0</ele><time>2026-05-01T09:25:32.809Z</time></trkpt><trkpt lat="40.91331309044188" lon="8.712823691549518"><ele>44.0</ele><time>2026-05-01T09:25:34.81Z</time></trkpt><trkpt lat="40.91339682543931" lon="8.712806927619866"><ele>45.166666666666664</ele><time>2026-05-01T09:25:37.809Z</time></trkpt><trkpt lat="40.913467475934205" lon="8.712823562023052"><ele>46.33333333333333</ele><time>2026-05-01T09:25:40.809Z</time></trkpt><trkpt lat="40.91352736112245" lon="8.712791253490828"><ele>47.5</ele><time>2026-05-01T09:26:33.808Z</time></trkpt><trkpt lat="40.913604000740236" lon="8.712733445404476"><ele>48.666666666666664</ele><time>2026-05-01T09:27:15.807Z</time></trkpt><trkpt lat="40.91358557229848" lon="8.712631780596219"><ele>49.833333333333336</ele><time>2026-05-01T09:27:18.807Z</time></trkpt><trkpt lat="40.91361514074349" lon="8.712512230745721"><ele>51.0</ele><time>2026-05-01T09:27:20.807Z</time></trkpt><trkpt lat="40.9136633702327" lon="8.71239105608234"><ele>51.0</ele><time>2026-05-01T09:27:22.807Z</time></trkpt><trkpt lat="40.91370596399317" lon="8.712262387742346"><ele>51.0</ele><time>2026-05-01T09:27:24.807Z</time></trkpt><trkpt lat="40.91373599172898" lon="8.71214148041287"><ele>51.0</ele><time>2026-05-01T09:27:26.807Z</time></trkpt><trkpt lat="40.91377390148226" lon="8.712031105209487"><ele>51.0</ele><time>2026-05-01T09:27:28.807Z</time></trkpt><trkpt lat="40.913803066788844" lon="8.711936397633222"><ele>51.0</ele><time>2026-05-01T09:27:30.807Z</time></trkpt><trkpt lat="40.91383557137105" lon="8.711854757568139"><ele>51.0</ele><time>2026-05-01T09:27:32.807Z</time></trkpt><trkpt lat="40.913869262142825" lon="8.711780208966863"><ele>50.8</ele><time>2026-05-01T09:27:36.808Z</time></trkpt><trkpt lat="40.91388059199021" lon="8.711697700061409"><ele>50.599999999999994</ele><time>2026-05-01T09:27:46.819Z</time></trkpt><trkpt lat="40.91390530478754" lon="8.711601379337448"><ele>50.4</ele><time>2026-05-01T09:27:48.821Z</time></trkpt><trkpt lat="40.913944932754845" lon="8.711461363493752"><ele>50.2</ele><time>2026-05-01T09:27:50.822Z</time></trkpt><trkpt lat="40.913997819816124" lon="8.711327475661436"><ele>50.0</ele><time>2026-05-01T09:27:52.823Z</time></trkpt><trkpt lat="40.914047971048284" lon="8.711185537825962"><ele>49.2</ele><time>2026-05-01T09:27:54.824Z</time></trkpt><trkpt lat="40.91409296873526" lon="8.711041358741731"><ele>48.4</ele><time>2026-05-01T09:27:56.825Z</time></trkpt><trkpt lat="40.91413402178279" lon="8.710933794822152"><ele>47.599999999999994</ele><time>2026-05-01T09:27:58.826Z</time></trkpt><trkpt lat="40.91417058363656" lon="8.710840204285981"><ele>46.8</ele><time>2026-05-01T09:28:00.827Z</time></trkpt><trkpt lat="40.91423280173075" lon="8.7107258977833"><ele>46.0</ele><time>2026-05-01T09:28:02.828Z</time></trkpt><trkpt lat="40.91429827713876" lon="8.71058993064445"><ele>46.0</ele><time>2026-05-01T09:28:04.828Z</time></trkpt><trkpt lat="40.914378821804576" lon="8.710480994994091"><ele>46.0</ele><time>2026-05-01T09:28:06.829Z</time></trkpt><trkpt lat="40.91447225764768" lon="8.710384354125095"><ele>46.0</ele><time>2026-05-01T09:28:08.829Z</time></trkpt><trkpt lat="40.91451602614441" lon="8.710319392363715"><ele>46.0</ele><time>2026-05-01T09:28:09.829Z</time></trkpt><trkpt lat="40.914558643747384" lon="8.710250903643253"><ele>46.0</ele><time>2026-05-01T09:28:10.83Z</time></trkpt><trkpt lat="40.914599751244985" lon="8.710178017824424"><ele>46.0</ele><time>2026-05-01T09:28:11.83Z</time></trkpt><trkpt lat="40.91465392233265" lon="8.710118123898653"><ele>43.333333333333336</ele><time>2026-05-01T09:28:12.83Z</time></trkpt><trkpt lat="40.91470399667899" lon="8.710049164099072"><ele>40.66666666666667</ele><time>2026-05-01T09:28:13.83Z</time></trkpt><trkpt lat="40.91475249514595" lon="8.709979886165986"><ele>38.0</ele><time>2026-05-01T09:28:14.83Z</time></trkpt><trkpt lat="40.914822316515945" lon="8.709866931482967"><ele>35.333333333333336</ele><time>2026-05-01T09:28:16.83Z</time></trkpt><trkpt lat="40.91486314441671" lon="8.709776697916556"><ele>32.666666666666664</ele><time>2026-05-01T09:28:18.831Z</time></trkpt><trkpt lat="40.914828710381535" lon="8.709706537947593"><ele>30.0</ele><time>2026-05-01T09:28:19.831Z</time></trkpt><trkpt lat="40.914762590772476" lon="8.709661877491168"><ele>30.0</ele><time>2026-05-01T09:28:21.831Z</time></trkpt><trkpt lat="40.91464289695079" lon="8.709634562591756"><ele>30.0</ele><time>2026-05-01T09:28:23.831Z</time></trkpt><trkpt lat="40.91457509938641" lon="8.709646225612616"><ele>30.0</ele><time>2026-05-01T09:28:24.831Z</time></trkpt><trkpt lat="40.91451015641167" lon="8.70965408588014"><ele>30.0</ele><time>2026-05-01T09:28:25.831Z</time></trkpt><trkpt lat="40.91444261011791" lon="8.709658185940517"><ele>30.0</ele><time>2026-05-01T09:28:26.831Z</time></trkpt><trkpt lat="40.914333617610595" lon="8.70965400633512"><ele>30.0</ele><time>2026-05-01T09:28:28.831Z</time></trkpt><trkpt lat="40.9144357777194" lon="8.709615767231384"><ele>30.0</ele><time>2026-05-01T09:28:31.832Z</time></trkpt><trkpt lat="40.91453888190845" lon="8.709597288140566"><ele>30.0</ele><time>2026-05-01T09:28:32.832Z</time></trkpt><trkpt lat="40.9146737259296" lon="8.709607098585613"><ele>30.0</ele><time>2026-05-01T09:28:33.832Z</time></trkpt><trkpt lat="40.91398545375424" lon="8.709263128188711"><ele>27.5</ele><time>2026-05-01T09:28:34.832Z</time></trkpt><trkpt lat="40.91393815693244" lon="8.70919137772878"><ele>25.0</ele><time>2026-05-01T09:28:35.832Z</time></trkpt><trkpt lat="40.91388227134339" lon="8.709117634875003"><ele>22.5</ele><time>2026-05-01T09:28:36.832Z</time></trkpt><trkpt lat="40.91383399640149" lon="8.709030944838059"><ele>20.0</ele><time>2026-05-01T09:28:37.832Z</time></trkpt><trkpt lat="40.91377715150139" lon="8.708958705153377"><ele>17.5</ele><time>2026-05-01T09:28:38.832Z</time></trkpt><trkpt lat="40.91373022110902" lon="8.70886922520567"><ele>15.0</ele><time>2026-05-01T09:28:39.832Z</time></trkpt><trkpt lat="40.91367686617306" lon="8.708794838887977"><ele>15.0</ele><time>2026-05-01T09:28:40.832Z</time></trkpt><trkpt lat="40.91363171535622" lon="8.708727805618786"><ele>15.0</ele><time>2026-05-01T09:28:41.832Z</time></trkpt><trkpt lat="40.91359418626382" lon="8.708659422701068"><ele>15.0</ele><time>2026-05-01T09:28:42.832Z</time></trkpt><trkpt lat="40.91354672481608" lon="8.708562844574443"><ele>15.0</ele><time>2026-05-01T09:28:44.832Z</time></trkpt><trkpt lat="40.913526869396925" lon="8.708481410651876"><ele>15.0</ele><time>2026-05-01T09:28:45.832Z</time></trkpt><trkpt lat="40.91351461885361" lon="8.708384963968841"><ele>15.0</ele><time>2026-05-01T09:28:46.832Z</time></trkpt><trkpt lat="40.913517768523995" lon="8.708292721560774"><ele>15.0</ele><time>2026-05-01T09:28:47.832Z</time></trkpt><trkpt lat="40.913538702714646" lon="8.708143490837037"><ele>13.166666666666666</ele><time>2026-05-01T09:28:49.832Z</time></trkpt><trkpt lat="40.91355342759884" lon="8.70804903396963"><ele>11.333333333333334</ele><time>2026-05-01T09:28:50.832Z</time></trkpt><trkpt lat="40.91357063496424" lon="8.707951707325153"><ele>9.5</ele><time>2026-05-01T09:28:51.832Z</time></trkpt><trkpt lat="40.913582905480745" lon="8.707855752493556"><ele>7.666666666666666</ele><time>2026-05-01T09:28:52.832Z</time></trkpt><trkpt lat="40.91359521859915" lon="8.707754684233167"><ele>5.833333333333333</ele><time>2026-05-01T09:28:53.832Z</time></trkpt><trkpt lat="40.913614218996706" lon="8.707656153509163"><ele>4.0</ele><time>2026-05-01T09:28:54.832Z</time></trkpt><trkpt lat="40.91363325624109" lon="8.707546910675966"><ele>3.4999999999999996</ele><time>2026-05-01T09:28:55.832Z</time></trkpt><trkpt lat="40.91364967791028" lon="8.707434243316923"><ele>3.0</ele><time>2026-05-01T09:28:56.832Z</time></trkpt><trkpt lat="40.913665817278535" lon="8.707323688310526"><ele>2.5</ele><time>2026-05-01T09:28:57.832Z</time></trkpt><trkpt lat="40.91369479877388" lon="8.707218175003513"><ele>2.0</ele><time>2026-05-01T09:28:58.832Z</time></trkpt><trkpt lat="40.913719971551835" lon="8.707121567103714"><ele>1.5</ele><time>2026-05-01T09:28:59.832Z</time></trkpt><trkpt lat="40.91374150735418" lon="8.70702870615421"><ele>1.0</ele><time>2026-05-01T09:29:00.832Z</time></trkpt><trkpt lat="40.91375394685747" lon="8.70692286642028"><ele>1.1666666666666665</ele><time>2026-05-01T09:29:01.832Z</time></trkpt><trkpt lat="40.91378130327103" lon="8.706825953300935"><ele>1.3333333333333333</ele><time>2026-05-01T09:29:02.832Z</time></trkpt><trkpt lat="40.91379340596877" lon="8.706719811817454"><ele>1.5</ele><time>2026-05-01T09:29:03.832Z</time></trkpt><trkpt lat="40.91379987763921" lon="8.706611117229256"><ele>1.6666666666666665</ele><time>2026-05-01T09:29:04.832Z</time></trkpt><trkpt lat="40.913810125737896" lon="8.706503218239408"><ele>1.8333333333333333</ele><time>2026-05-01T09:29:05.832Z</time></trkpt><trkpt lat="40.913835041822" lon="8.706392408918983"><ele>2.0</ele><time>2026-05-01T09:29:06.832Z</time></trkpt><trkpt lat="40.913867268266706" lon="8.70627872349049"><ele>1.9999999999999998</ele><time>2026-05-01T09:29:07.832Z</time></trkpt><trkpt lat="40.91388537345851" lon="8.706167908817562"><ele>2.0</ele><time>2026-05-01T09:29:08.832Z</time></trkpt><trkpt lat="40.913894471625696" lon="8.70604955258195"><ele>2.0</ele><time>2026-05-01T09:29:09.832Z</time></trkpt><trkpt lat="40.9139155440379" lon="8.705936456649283"><ele>2.0</ele><time>2026-05-01T09:29:10.832Z</time></trkpt><trkpt lat="40.91393766658959" lon="8.70582842885387"><ele>1.9999999999999998</ele><time>2026-05-01T09:29:11.832Z</time></trkpt><trkpt lat="40.91395303653081" lon="8.70572595105813"><ele>2.0</ele><time>2026-05-01T09:29:12.832Z</time></trkpt><trkpt lat="40.91397392249693" lon="8.705615392733273"><ele>2.4000000000000004</ele><time>2026-05-01T09:29:13.832Z</time></trkpt><trkpt lat="40.913996727936635" lon="8.705497408034695"><ele>2.8000000000000003</ele><time>2026-05-01T09:29:14.832Z</time></trkpt><trkpt lat="40.91400920270369" lon="8.705380399213984"><ele>3.2</ele><time>2026-05-01T09:29:15.832Z</time></trkpt><trkpt lat="40.914001050706794" lon="8.705263212424752"><ele>3.6</ele><time>2026-05-01T09:29:16.832Z</time></trkpt><trkpt lat="40.91397901165037" lon="8.705134403367126"><ele>4.0</ele><time>2026-05-01T09:29:17.832Z</time></trkpt><trkpt lat="40.913939599944335" lon="8.70501696029854"><ele>4.0</ele><time>2026-05-01T09:29:18.832Z</time></trkpt><trkpt lat="40.913905314584035" lon="8.704891665924949"><ele>4.0</ele><time>2026-05-01T09:29:19.832Z</time></trkpt><trkpt lat="40.91386182428439" lon="8.704771985401235"><ele>4.0</ele><time>2026-05-01T09:29:20.832Z</time></trkpt><trkpt lat="40.91381897559804" lon="8.704659261250574"><ele>4.0</ele><time>2026-05-01T09:29:21.832Z</time></trkpt><trkpt lat="40.91379597985808" lon="8.704546606988993"><ele>4.0</ele><time>2026-05-01T09:29:22.832Z</time></trkpt><trkpt lat="40.913779644188715" lon="8.704462011097958"><ele>3.6666666666666665</ele><time>2026-05-01T09:29:23.832Z</time></trkpt><trkpt lat="40.913746922239035" lon="8.70430934005415"><ele>3.333333333333333</ele><time>2026-05-01T09:29:25.832Z</time></trkpt><trkpt lat="40.91372142822138" lon="8.704230948501378"><ele>3.0</ele><time>2026-05-01T09:29:26.832Z</time></trkpt><trkpt lat="40.913685724917755" lon="8.704135897132293"><ele>2.6666666666666665</ele><time>2026-05-01T09:29:27.832Z</time></trkpt><trkpt lat="40.91364892914454" lon="8.704035823074925"><ele>2.333333333333333</ele><time>2026-05-01T09:29:28.832Z</time></trkpt><trkpt lat="40.913611544645924" lon="8.703959725247636"><ele>2.0</ele><time>2026-05-01T09:29:29.832Z</time></trkpt><trkpt lat="40.91352011474933" lon="8.70386232200529"><ele>1.9999999999999998</ele><time>2026-05-01T09:29:31.832Z</time></trkpt><trkpt lat="40.913461754627" lon="8.703803828774307"><ele>2.0</ele><time>2026-05-01T09:29:32.832Z</time></trkpt><trkpt lat="40.91339453812739" lon="8.703737190133241"><ele>2.0</ele><time>2026-05-01T09:29:33.832Z</time></trkpt><trkpt lat="40.91332872456171" lon="8.703663931775452"><ele>2.0</ele><time>2026-05-01T09:29:34.832Z</time></trkpt><trkpt lat="40.91325721471286" lon="8.703648351648338"><ele>1.9999999999999998</ele><time>2026-05-01T09:29:35.832Z</time></trkpt><trkpt lat="40.913180109135155" lon="8.703649995055326"><ele>2.0</ele><time>2026-05-01T09:29:36.832Z</time></trkpt><trkpt lat="40.913106947075406" lon="8.70367300478096"><ele>4.800000000000001</ele><time>2026-05-01T09:29:37.832Z</time></trkpt><trkpt lat="40.91303133790695" lon="8.703714925083775"><ele>7.6000000000000005</ele><time>2026-05-01T09:29:38.832Z</time></trkpt><trkpt lat="40.912947488253444" lon="8.703763315702963"><ele>10.400000000000002</ele><time>2026-05-01T09:29:39.832Z</time></trkpt><trkpt lat="40.91285832994647" lon="8.70381939580318"><ele>13.200000000000001</ele><time>2026-05-01T09:29:40.832Z</time></trkpt><trkpt lat="40.91276565636783" lon="8.703879425579084"><ele>16.0</ele><time>2026-05-01T09:29:41.832Z</time></trkpt><trkpt lat="40.912675313328904" lon="8.703956983040273"><ele>16.0</ele><time>2026-05-01T09:29:42.832Z</time></trkpt><trkpt lat="40.91259507152085" lon="8.704054204759807"><ele>16.0</ele><time>2026-05-01T09:29:43.83Z</time></trkpt><trkpt lat="40.91251665856674" lon="8.704165492907883"><ele>16.0</ele><time>2026-05-01T09:29:44.83Z</time></trkpt><trkpt lat="40.91243370761919" lon="8.70427040257663"><ele>16.0</ele><time>2026-05-01T09:29:45.83Z</time></trkpt><trkpt lat="40.91235384761564" lon="8.704380814504134"><ele>19.0</ele><time>2026-05-01T09:29:46.83Z</time></trkpt><trkpt lat="40.91228351251712" lon="8.704500692888248"><ele>22.0</ele><time>2026-05-01T09:29:47.829Z</time></trkpt><trkpt lat="40.91222406054922" lon="8.704631651613493"><ele>25.0</ele><time>2026-05-01T09:29:48.829Z</time></trkpt><trkpt lat="40.91217580520502" lon="8.704769717368777"><ele>28.0</ele><time>2026-05-01T09:29:49.83Z</time></trkpt><trkpt lat="40.9121398811545" lon="8.704917468301627"><ele>28.0</ele><time>2026-05-01T09:29:50.829Z</time></trkpt><trkpt lat="40.91210351975494" lon="8.70508014983152"><ele>28.0</ele><time>2026-05-01T09:29:51.829Z</time></trkpt><trkpt lat="40.9120680765539" lon="8.705245567749024"><ele>28.0</ele><time>2026-05-01T09:29:52.83Z</time></trkpt><trkpt lat="40.912032202890444" lon="8.705411913516208"><ele>28.0</ele><time>2026-05-01T09:29:53.83Z</time></trkpt><trkpt lat="40.911983537049316" lon="8.705563436586612"><ele>28.2</ele><time>2026-05-01T09:29:54.83Z</time></trkpt><trkpt lat="40.91193386667842" lon="8.70570382971896"><ele>28.4</ele><time>2026-05-01T09:29:55.83Z</time></trkpt><trkpt lat="40.911889464774696" lon="8.705844530558664"><ele>28.599999999999998</ele><time>2026-05-01T09:29:56.829Z</time></trkpt><trkpt lat="40.91182632400657" lon="8.705963140987718"><ele>28.799999999999997</ele><time>2026-05-01T09:29:57.829Z</time></trkpt><trkpt lat="40.911758364527394" lon="8.706063440383318"><ele>29.0</ele><time>2026-05-01T09:29:58.829Z</time></trkpt><trkpt lat="40.91167570910841" lon="8.706137095269401"><ele>29.0</ele><time>2026-05-01T09:29:59.829Z</time></trkpt><trkpt lat="40.91157745889602" lon="8.7061748998478"><ele>29.0</ele><time>2026-05-01T09:30:00.829Z</time></trkpt><trkpt lat="40.9114821052431" lon="8.706188962287666"><ele>29.0</ele><time>2026-05-01T09:30:01.829Z</time></trkpt><trkpt lat="40.91139423300965" lon="8.706179017321544"><ele>29.0</ele><time>2026-05-01T09:30:02.829Z</time></trkpt><trkpt lat="40.91131996598797" lon="8.706160782354068"><ele>29.0</ele><time>2026-05-01T09:30:03.829Z</time></trkpt><trkpt lat="40.91121920699151" lon="8.706136334050175"><ele>29.000000000000004</ele><time>2026-05-01T09:30:05.829Z</time></trkpt><trkpt lat="40.91115220069229" lon="8.706124120753906"><ele>29.0</ele><time>2026-05-01T09:30:08.829Z</time></trkpt><trkpt lat="40.91107765803975" lon="8.70612997819335"><ele>29.000000000000004</ele><time>2026-05-01T09:30:16.829Z</time></trkpt><trkpt lat="40.911010179592694" lon="8.70610591793969"><ele>29.000000000000004</ele><time>2026-05-01T09:30:18.829Z</time></trkpt><trkpt lat="40.91108170463991" lon="8.706118882763775"><ele>29.0</ele><time>2026-05-01T09:30:25.829Z</time></trkpt><trkpt lat="40.91116576778045" lon="8.706134120361037"><ele>29.000000000000004</ele><time>2026-05-01T09:30:27.829Z</time></trkpt><trkpt lat="40.91123236788159" lon="8.706145390928164"><ele>29.000000000000004</ele><time>2026-05-01T09:30:29.829Z</time></trkpt><trkpt lat="40.91130315210273" lon="8.706155996330105"><ele>29.0</ele><time>2026-05-01T09:30:31.829Z</time></trkpt><trkpt lat="40.91136913886451" lon="8.706166418704951"><ele>29.0</ele><time>2026-05-01T09:30:32.829Z</time></trkpt><trkpt lat="40.91144221152892" lon="8.706229713065463"><ele>29.0</ele><time>2026-05-01T09:30:33.829Z</time></trkpt><trkpt lat="40.91153405206725" lon="8.706218036997566"><ele>29.0</ele><time>2026-05-01T09:30:34.829Z</time></trkpt><trkpt lat="40.911632446441274" lon="8.706182298791282"><ele>29.0</ele><time>2026-05-01T09:30:35.829Z</time></trkpt><trkpt lat="40.9117304546447" lon="8.706122175418544"><ele>30.2</ele><time>2026-05-01T09:30:36.829Z</time></trkpt><trkpt lat="40.91181198088933" lon="8.70603542470437"><ele>31.4</ele><time>2026-05-01T09:30:37.829Z</time></trkpt><trkpt lat="40.91188019372522" lon="8.705925625428907"><ele>32.6</ele><time>2026-05-01T09:30:38.829Z</time></trkpt><trkpt lat="40.91193822362175" lon="8.70579924717465"><ele>33.8</ele><time>2026-05-01T09:30:39.829Z</time></trkpt><trkpt lat="40.91198667930533" lon="8.705657887546556"><ele>35.0</ele><time>2026-05-01T09:30:40.829Z</time></trkpt><trkpt lat="40.91202889291176" lon="8.705506548357864"><ele>35.0</ele><time>2026-05-01T09:30:41.829Z</time></trkpt><trkpt lat="40.91207312893699" lon="8.705349952082555"><ele>35.0</ele><time>2026-05-01T09:30:42.829Z</time></trkpt><trkpt lat="40.91210676390855" lon="8.705189014516003"><ele>35.0</ele><time>2026-05-01T09:30:43.829Z</time></trkpt><trkpt lat="40.91213985085912" lon="8.705025147640379"><ele>35.0</ele><time>2026-05-01T09:30:44.829Z</time></trkpt><trkpt lat="40.912172974571874" lon="8.704872826736391"><ele>33.25</ele><time>2026-05-01T09:30:45.829Z</time></trkpt><trkpt lat="40.912219721291834" lon="8.704726814468698"><ele>31.5</ele><time>2026-05-01T09:30:46.829Z</time></trkpt><trkpt lat="40.91227622468246" lon="8.704587456468534"><ele>29.75</ele><time>2026-05-01T09:30:47.829Z</time></trkpt><trkpt lat="40.91234047719881" lon="8.70445350175115"><ele>28.0</ele><time>2026-05-01T09:30:48.829Z</time></trkpt><trkpt lat="40.91242030322191" lon="8.704329485850092"><ele>25.0</ele><time>2026-05-01T09:30:49.829Z</time></trkpt><trkpt lat="40.91250954787835" lon="8.70421017472427"><ele>22.0</ele><time>2026-05-01T09:30:50.829Z</time></trkpt><trkpt lat="40.91260465228275" lon="8.704096881257424"><ele>19.0</ele><time>2026-05-01T09:30:51.829Z</time></trkpt><trkpt lat="40.912698837805216" lon="8.703994179400958"><ele>16.0</ele><time>2026-05-01T09:30:52.829Z</time></trkpt><trkpt lat="40.91280022655418" lon="8.70389719844817"><ele>16.0</ele><time>2026-05-01T09:30:53.829Z</time></trkpt><trkpt lat="40.91290780618541" lon="8.703805696045603"><ele>16.0</ele><time>2026-05-01T09:30:54.829Z</time></trkpt><trkpt lat="40.913010073640336" lon="8.703742631880425"><ele>16.0</ele><time>2026-05-01T09:30:55.829Z</time></trkpt><trkpt lat="40.91310770351109" lon="8.703705038481996"><ele>16.0</ele><time>2026-05-01T09:30:56.829Z</time></trkpt><trkpt lat="40.9132077081917" lon="8.703698505590134"><ele>16.0</ele><time>2026-05-01T09:30:57.829Z</time></trkpt><trkpt lat="40.913304412325814" lon="8.7037118998641"><ele>16.0</ele><time>2026-05-01T09:30:58.829Z</time></trkpt><trkpt lat="40.91338712962907" lon="8.703764704408123"><ele>16.0</ele><time>2026-05-01T09:30:59.829Z</time></trkpt><trkpt lat="40.91345894769166" lon="8.703842758637615"><ele>16.0</ele><time>2026-05-01T09:31:00.829Z</time></trkpt><trkpt lat="40.913535310666404" lon="8.70392436170855"><ele>16.0</ele><time>2026-05-01T09:31:01.829Z</time></trkpt><trkpt lat="40.91359458170716" lon="8.70402667819296"><ele>16.0</ele><time>2026-05-01T09:31:02.829Z</time></trkpt><trkpt lat="40.913638972484044" lon="8.704142487681798"><ele>13.600000000000001</ele><time>2026-05-01T09:31:03.829Z</time></trkpt><trkpt lat="40.913672658975884" lon="8.7042670135136"><ele>11.200000000000001</ele><time>2026-05-01T09:31:04.829Z</time></trkpt><trkpt lat="40.91371326765418" lon="8.704405636157874"><ele>8.8</ele><time>2026-05-01T09:31:05.829Z</time></trkpt><trkpt lat="40.913748337200296" lon="8.70453891320583"><ele>6.4</ele><time>2026-05-01T09:31:06.829Z</time></trkpt><trkpt lat="40.91378311496231" lon="8.704664290701416"><ele>4.0</ele><time>2026-05-01T09:31:07.829Z</time></trkpt><trkpt lat="40.9138200962956" lon="8.704767851086089"><ele>3.9999999999999996</ele><time>2026-05-01T09:31:08.829Z</time></trkpt><trkpt lat="40.91385117893103" lon="8.704863981147687"><ele>4.0</ele><time>2026-05-01T09:31:09.829Z</time></trkpt><trkpt lat="40.91387615640757" lon="8.704955728965384"><ele>4.0</ele><time>2026-05-01T09:31:10.829Z</time></trkpt><trkpt lat="40.91390404253851" lon="8.70506098601355"><ele>4.0</ele><time>2026-05-01T09:31:11.829Z</time></trkpt><trkpt lat="40.913933300096126" lon="8.705173108104397"><ele>3.9999999999999996</ele><time>2026-05-01T09:31:12.829Z</time></trkpt><trkpt lat="40.91395425631753" lon="8.705291364984845"><ele>4.0</ele><time>2026-05-01T09:31:13.829Z</time></trkpt><trkpt lat="40.91395878504373" lon="8.705410818758217"><ele>4.0</ele><time>2026-05-01T09:31:14.829Z</time></trkpt><trkpt lat="40.91395618057247" lon="8.705522680845593"><ele>4.0</ele><time>2026-05-01T09:31:15.829Z</time></trkpt><trkpt lat="40.913941648516364" lon="8.705645415369707"><ele>4.0</ele><time>2026-05-01T09:31:16.829Z</time></trkpt><trkpt lat="40.91391885118165" lon="8.705772476470978"><ele>4.0</ele><time>2026-05-01T09:31:17.829Z</time></trkpt><trkpt lat="40.91389969342419" lon="8.70591043934264"><ele>4.0</ele><time>2026-05-01T09:31:18.829Z</time></trkpt><trkpt lat="40.91386859126705" lon="8.706054354016404"><ele>3.5</ele><time>2026-05-01T09:31:19.829Z</time></trkpt><trkpt lat="40.91384319584003" lon="8.706205760543043"><ele>3.0</ele><time>2026-05-01T09:31:20.829Z</time></trkpt><trkpt lat="40.91381262315812" lon="8.706350200458283"><ele>2.5</ele><time>2026-05-01T09:31:21.829Z</time></trkpt><trkpt lat="40.91378596462106" lon="8.706500293233256"><ele>2.0</ele><time>2026-05-01T09:31:22.829Z</time></trkpt><trkpt lat="40.91375628199576" lon="8.706637879912504"><ele>2.0</ele><time>2026-05-01T09:31:23.829Z</time></trkpt><trkpt lat="40.91372793847568" lon="8.706778977411346"><ele>2.0</ele><time>2026-05-01T09:31:24.829Z</time></trkpt><trkpt lat="40.913703963565105" lon="8.706926862023314"><ele>2.0</ele><time>2026-05-01T09:31:25.829Z</time></trkpt><trkpt lat="40.913680373518666" lon="8.707066471560006"><ele>2.0</ele><time>2026-05-01T09:31:26.829Z</time></trkpt><trkpt lat="40.91365723682761" lon="8.707200272101195"><ele>2.0</ele><time>2026-05-01T09:31:27.829Z</time></trkpt><trkpt lat="40.91363719585103" lon="8.707327038957702"><ele>1.857142857142857</ele><time>2026-05-01T09:31:28.829Z</time></trkpt><trkpt lat="40.913617518156094" lon="8.70744067575493"><ele>1.714285714285714</ele><time>2026-05-01T09:31:29.829Z</time></trkpt><trkpt lat="40.91359213841548" lon="8.707543716848495"><ele>1.5714285714285714</ele><time>2026-05-01T09:31:30.829Z</time></trkpt><trkpt lat="40.91357270125985" lon="8.707639602015048"><ele>1.4285714285714284</ele><time>2026-05-01T09:31:31.829Z</time></trkpt><trkpt lat="40.913562350729585" lon="8.70772528713476"><ele>1.2857142857142856</ele><time>2026-05-01T09:31:32.829Z</time></trkpt><trkpt lat="40.913554835637136" lon="8.70781721815346"><ele>1.1428571428571428</ele><time>2026-05-01T09:31:33.829Z</time></trkpt><trkpt lat="40.91354443217165" lon="8.707904871572527"><ele>1.0</ele><time>2026-05-01T09:31:34.829Z</time></trkpt><trkpt lat="40.913524444610786" lon="8.707997075050253"><ele>1.6</ele><time>2026-05-01T09:31:35.829Z</time></trkpt><trkpt lat="40.913510009029125" lon="8.708085203940344"><ele>2.2</ele><time>2026-05-01T09:31:36.829Z</time></trkpt><trkpt lat="40.91349133568127" lon="8.708170945450199"><ele>2.8000000000000003</ele><time>2026-05-01T09:31:37.829Z</time></trkpt><trkpt lat="40.913473045288654" lon="8.708336737588887"><ele>3.4000000000000004</ele><time>2026-05-01T09:31:39.828Z</time></trkpt><trkpt lat="40.913488984901356" lon="8.708498581886516"><ele>4.0</ele><time>2026-05-01T09:31:41.828Z</time></trkpt><trkpt lat="40.913515156232805" lon="8.708578183100443"><ele>5.833333333333333</ele><time>2026-05-01T09:31:42.828Z</time></trkpt><trkpt lat="40.9135529825392" lon="8.708663388112631"><ele>7.666666666666666</ele><time>2026-05-01T09:31:43.828Z</time></trkpt><trkpt lat="40.91359678004157" lon="8.708747925677997"><ele>9.5</ele><time>2026-05-01T09:31:44.828Z</time></trkpt><trkpt lat="40.91364870900177" lon="8.70881933477736"><ele>11.333333333333334</ele><time>2026-05-01T09:31:45.828Z</time></trkpt><trkpt lat="40.91371155366852" lon="8.708908715101225"><ele>13.166666666666666</ele><time>2026-05-01T09:31:46.828Z</time></trkpt><trkpt lat="40.9137744783957" lon="8.708993881409612"><ele>15.0</ele><time>2026-05-01T09:31:47.828Z</time></trkpt><trkpt lat="40.91382244882703" lon="8.709094393441612"><ele>15.0</ele><time>2026-05-01T09:31:48.828Z</time></trkpt><trkpt lat="40.91388171568216" lon="8.709184024138596"><ele>15.0</ele><time>2026-05-01T09:31:49.827Z</time></trkpt><trkpt lat="40.91393777522901" lon="8.709268804332474"><ele>15.0</ele><time>2026-05-01T09:31:50.827Z</time></trkpt><trkpt lat="40.91399473883522" lon="8.709354951754314"><ele>15.0</ele><time>2026-05-01T09:31:51.827Z</time></trkpt><trkpt lat="40.91405086546457" lon="8.709441057929402"><ele>15.0</ele><time>2026-05-01T09:31:52.826Z</time></trkpt><trkpt lat="40.914105340652156" lon="8.709521211301736"><ele>15.0</ele><time>2026-05-01T09:31:53.827Z</time></trkpt><trkpt lat="40.91416564164586" lon="8.709594785734751"><ele>17.0</ele><time>2026-05-01T09:31:54.827Z</time></trkpt><trkpt lat="40.91423346075342" lon="8.709650837859696"><ele>19.0</ele><time>2026-05-01T09:31:55.827Z</time></trkpt><trkpt lat="40.9143139567245" lon="8.709691701181757"><ele>21.0</ele><time>2026-05-01T09:31:56.826Z</time></trkpt><trkpt lat="40.91439841845633" lon="8.709686856384508"><ele>23.0</ele><time>2026-05-01T09:31:57.826Z</time></trkpt><trkpt lat="40.914475932664516" lon="8.709692284226904"><ele>25.0</ele><time>2026-05-01T09:31:58.826Z</time></trkpt><trkpt lat="40.91455377458191" lon="8.709683593369004"><ele>27.0</ele><time>2026-05-01T09:31:59.827Z</time></trkpt><trkpt lat="40.91463004070699" lon="8.709675076006816"><ele>27.428571428571427</ele><time>2026-05-01T09:32:00.827Z</time></trkpt><trkpt lat="40.914704281030225" lon="8.709668922553034"><ele>27.857142857142854</ele><time>2026-05-01T09:32:01.827Z</time></trkpt><trkpt lat="40.91478240329424" lon="8.709698715015186"><ele>28.285714285714285</ele><time>2026-05-01T09:32:03.827Z</time></trkpt><trkpt lat="40.914791205001706" lon="8.7097860163284"><ele>28.714285714285715</ele><time>2026-05-01T09:32:06.827Z</time></trkpt><trkpt lat="40.91475747031251" lon="8.709867800194118"><ele>29.142857142857142</ele><time>2026-05-01T09:32:08.827Z</time></trkpt><trkpt lat="40.91471163430672" lon="8.709942885200354"><ele>29.571428571428573</ele><time>2026-05-01T09:32:11.827Z</time></trkpt><trkpt lat="40.91466491165084" lon="8.71000254972727"><ele>30.0</ele><time>2026-05-01T09:32:20.826Z</time></trkpt><trkpt lat="40.9146160163842" lon="8.710064474122749"><ele>30.0</ele><time>2026-05-01T09:32:34.826Z</time></trkpt><trkpt lat="40.91468924510122" lon="8.709971732118218"><ele>30.0</ele><time>2026-05-01T09:32:46.826Z</time></trkpt><trkpt lat="40.91474443985652" lon="8.7098976817224"><ele>30.0</ele><time>2026-05-01T09:32:48.826Z</time></trkpt><trkpt lat="40.91479715017776" lon="8.709815388686858"><ele>30.0</ele><time>2026-05-01T09:32:51.826Z</time></trkpt><trkpt lat="40.91488277893184" lon="8.70981174212188"><ele>30.0</ele><time>2026-05-01T09:43:31.866Z</time></trkpt><trkpt lat="40.914889291651384" lon="8.709724186050025"><ele>30.0</ele><time>2026-05-01T09:55:18.858Z</time></trkpt><trkpt lat="40.91482823688335" lon="8.709768224729608"><ele>30.0</ele><time>2026-05-01T10:04:23.866Z</time></trkpt><trkpt lat="40.914765655515446" lon="8.709736452647048"><ele>30.0</ele><time>2026-05-01T10:05:03.867Z</time></trkpt><trkpt lat="40.91484707397542" lon="8.709766255979668"><ele>30.0</ele><time>2026-05-01T10:06:46.866Z</time></trkpt><trkpt lat="40.914906981452745" lon="8.709800448357344"><ele>30.0</ele><time>2026-05-01T10:06:51.866Z</time></trkpt><trkpt lat="40.91482921375985" lon="8.709734955899755"><ele>30.0</ele><time>2026-05-01T10:13:11.851Z</time></trkpt><trkpt lat="40.91480013966404" lon="8.709643592115588"><ele>30.0</ele><time>2026-05-01T10:13:16.85Z</time></trkpt><trkpt lat="40.91471855291874" lon="8.709623746599783"><ele>30.0</ele><time>2026-05-01T10:13:18.85Z</time></trkpt><trkpt lat="40.91462715928945" lon="8.70963145164406"><ele>30.0</ele><time>2026-05-01T10:13:20.85Z</time></trkpt><trkpt lat="40.914520592772774" lon="8.709677221113102"><ele>30.0</ele><time>2026-05-01T10:13:22.85Z</time></trkpt><trkpt lat="40.91445613794907" lon="8.709657364807288"><ele>30.0</ele><time>2026-05-01T10:13:23.85Z</time></trkpt><trkpt lat="40.91439194696535" lon="8.709658920830066"><ele>30.0</ele><time>2026-05-01T10:13:24.85Z</time></trkpt><trkpt lat="40.91428536553315" lon="8.709633282857661"><ele>30.0</ele><time>2026-05-01T10:13:26.85Z</time></trkpt><trkpt lat="40.91421500481027" lon="8.709630045130266"><ele>29.5</ele><time>2026-05-01T10:13:27.85Z</time></trkpt><trkpt lat="40.914159518053424" lon="8.709573793842356"><ele>29.0</ele><time>2026-05-01T10:13:28.85Z</time></trkpt><trkpt lat="40.914105887938206" lon="8.70950434229391"><ele>28.5</ele><time>2026-05-01T10:13:29.85Z</time></trkpt><trkpt lat="40.914049377454326" lon="8.70942295359841"><ele>28.0</ele><time>2026-05-01T10:13:30.85Z</time></trkpt><trkpt lat="40.91399640960663" lon="8.709335513984476"><ele>27.5</ele><time>2026-05-01T10:13:31.849Z</time></trkpt><trkpt lat="40.91393806144394" lon="8.709254408072221"><ele>27.0</ele><time>2026-05-01T10:13:32.849Z</time></trkpt><trkpt lat="40.91388435888091" lon="8.709163580697487"><ele>25.0</ele><time>2026-05-01T10:13:33.849Z</time></trkpt><trkpt lat="40.91382214544097" lon="8.709076051080983"><ele>23.0</ele><time>2026-05-01T10:13:34.849Z</time></trkpt><trkpt lat="40.91376096126358" lon="8.708983691474598"><ele>21.0</ele><time>2026-05-01T10:13:35.849Z</time></trkpt><trkpt lat="40.91370932475683" lon="8.7089029138428"><ele>19.0</ele><time>2026-05-01T10:13:36.849Z</time></trkpt><trkpt lat="40.913653585532735" lon="8.708824697439633"><ele>17.0</ele><time>2026-05-01T10:13:37.849Z</time></trkpt><trkpt lat="40.91360847183538" lon="8.70873990407934"><ele>15.0</ele><time>2026-05-01T10:13:38.849Z</time></trkpt><trkpt lat="40.913562559448025" lon="8.708655146617858"><ele>13.166666666666666</ele><time>2026-05-01T10:13:39.849Z</time></trkpt><trkpt lat="40.913532297558845" lon="8.708567602390385"><ele>11.333333333333334</ele><time>2026-05-01T10:13:40.849Z</time></trkpt><trkpt lat="40.91350773397295" lon="8.708458819932309"><ele>9.5</ele><time>2026-05-01T10:13:41.849Z</time></trkpt><trkpt lat="40.91349874784734" lon="8.708347931930026"><ele>7.666666666666666</ele><time>2026-05-01T10:13:42.849Z</time></trkpt><trkpt lat="40.91350887815739" lon="8.708225406075016"><ele>5.833333333333333</ele><time>2026-05-01T10:13:43.849Z</time></trkpt><trkpt lat="40.913526094962535" lon="8.708102133774487"><ele>4.0</ele><time>2026-05-01T10:13:44.849Z</time></trkpt><trkpt lat="40.91355667447368" lon="8.707982291578789"><ele>4.0</ele><time>2026-05-01T10:13:45.849Z</time></trkpt><trkpt lat="40.91357418721738" lon="8.707850025909204"><ele>4.0</ele><time>2026-05-01T10:13:46.849Z</time></trkpt><trkpt lat="40.913601259255955" lon="8.707727329223689"><ele>4.0</ele><time>2026-05-01T10:13:47.849Z</time></trkpt><trkpt lat="40.91361506906496" lon="8.707600576993176"><ele>4.0</ele><time>2026-05-01T10:13:48.849Z</time></trkpt><trkpt lat="40.91363929903363" lon="8.707470298423074"><ele>4.0</ele><time>2026-05-01T10:13:49.849Z</time></trkpt><trkpt lat="40.913657139900195" lon="8.707338865042088"><ele>3.6</ele><time>2026-05-01T10:13:50.849Z</time></trkpt><trkpt lat="40.913677702111805" lon="8.707207432474654"><ele>3.2</ele><time>2026-05-01T10:13:51.849Z</time></trkpt><trkpt lat="40.913699674358014" lon="8.707086623556036"><ele>2.8000000000000003</ele><time>2026-05-01T10:13:52.849Z</time></trkpt><trkpt lat="40.91372229860897" lon="8.706970108119615"><ele>2.4000000000000004</ele><time>2026-05-01T10:13:53.849Z</time></trkpt><trkpt lat="40.91374074356989" lon="8.706868870416251"><ele>2.0</ele><time>2026-05-01T10:13:54.849Z</time></trkpt><trkpt lat="40.913765143635814" lon="8.706739414775239"><ele>1.9999999999999998</ele><time>2026-05-01T10:13:56.849Z</time></trkpt><trkpt lat="40.913792105780466" lon="8.706656907788702"><ele>2.0</ele><time>2026-05-01T10:14:00.849Z</time></trkpt><trkpt lat="40.913811205357995" lon="8.7065185737761"><ele>2.0</ele><time>2026-05-01T10:14:03.848Z</time></trkpt><trkpt lat="40.91383555258965" lon="8.706352651891534"><ele>2.0</ele><time>2026-05-01T10:14:05.849Z</time></trkpt><trkpt lat="40.91385843237322" lon="8.706266380432243"><ele>1.9999999999999998</ele><time>2026-05-01T10:14:06.848Z</time></trkpt><trkpt lat="40.91387024874011" lon="8.706169193413787"><ele>2.0</ele><time>2026-05-01T10:14:07.848Z</time></trkpt><trkpt lat="40.91389578764352" lon="8.706063772738228"><ele>2.4000000000000004</ele><time>2026-05-01T10:14:08.848Z</time></trkpt><trkpt lat="40.91391620156987" lon="8.705958172740733"><ele>2.8000000000000003</ele><time>2026-05-01T10:14:09.849Z</time></trkpt><trkpt lat="40.913938115487404" lon="8.705842042922903"><ele>3.2</ele><time>2026-05-01T10:14:10.849Z</time></trkpt><trkpt lat="40.91395579991763" lon="8.705718980952856"><ele>3.6</ele><time>2026-05-01T10:14:11.848Z</time></trkpt><trkpt lat="40.91397338917898" lon="8.705595592684322"><ele>4.0</ele><time>2026-05-01T10:14:12.848Z</time></trkpt><trkpt lat="40.9139867603145" lon="8.705470683765173"><ele>4.0</ele><time>2026-05-01T10:14:13.848Z</time></trkpt><trkpt lat="40.913986633467175" lon="8.705344222853313"><ele>4.0</ele><time>2026-05-01T10:14:14.848Z</time></trkpt><trkpt lat="40.91397201746458" lon="8.70521473562145"><ele>4.0</ele><time>2026-05-01T10:14:15.848Z</time></trkpt><trkpt lat="40.913947603710064" lon="8.705089970546123"><ele>4.0</ele><time>2026-05-01T10:14:16.848Z</time></trkpt><trkpt lat="40.913913824463485" lon="8.704961156427487"><ele>4.0</ele><time>2026-05-01T10:14:17.848Z</time></trkpt><trkpt lat="40.91387523465051" lon="8.704837670264457"><ele>4.0</ele><time>2026-05-01T10:14:18.848Z</time></trkpt><trkpt lat="40.913835150427936" lon="8.704705844544085"><ele>4.0</ele><time>2026-05-01T10:14:19.848Z</time></trkpt><trkpt lat="40.91379284304033" lon="8.704579250065041"><ele>4.0</ele><time>2026-05-01T10:14:20.848Z</time></trkpt><trkpt lat="40.91375445046746" lon="8.704449909287593"><ele>4.0</ele><time>2026-05-01T10:14:21.848Z</time></trkpt><trkpt lat="40.91371356567145" lon="8.704326239117064"><ele>4.0</ele><time>2026-05-01T10:14:22.848Z</time></trkpt><trkpt lat="40.91367631602732" lon="8.704211277764253"><ele>3.6</ele><time>2026-05-01T10:14:23.848Z</time></trkpt><trkpt lat="40.913636320783574" lon="8.704102165720547"><ele>3.2</ele><time>2026-05-01T10:14:24.848Z</time></trkpt><trkpt lat="40.91358879133563" lon="8.704008260314069"><ele>2.8000000000000003</ele><time>2026-05-01T10:14:25.848Z</time></trkpt><trkpt lat="40.91352883775792" lon="8.703921219453628"><ele>2.4000000000000004</ele><time>2026-05-01T10:14:26.848Z</time></trkpt><trkpt lat="40.913464912017005" lon="8.703840043574587"><ele>2.0</ele><time>2026-05-01T10:14:27.848Z</time></trkpt><trkpt lat="40.913405558485124" lon="8.70373830228809"><ele>4.800000000000001</ele><time>2026-05-01T10:14:28.848Z</time></trkpt><trkpt lat="40.91332510521365" lon="8.70368381638718"><ele>7.6000000000000005</ele><time>2026-05-01T10:14:29.848Z</time></trkpt><trkpt lat="40.913238668201544" lon="8.703657915218507"><ele>10.400000000000002</ele><time>2026-05-01T10:14:30.848Z</time></trkpt><trkpt lat="40.91314768658382" lon="8.703660926410196"><ele>13.200000000000001</ele><time>2026-05-01T10:14:31.848Z</time></trkpt><trkpt lat="40.91305846421697" lon="8.703689442891394"><ele>16.0</ele><time>2026-05-01T10:14:32.848Z</time></trkpt><trkpt lat="40.912971418008745" lon="8.703754291277365"><ele>16.0</ele><time>2026-05-01T10:14:33.848Z</time></trkpt><trkpt lat="40.91288322933802" lon="8.70380806952926"><ele>16.0</ele><time>2026-05-01T10:14:34.848Z</time></trkpt><trkpt lat="40.91279592790232" lon="8.703877121806102"><ele>16.0</ele><time>2026-05-01T10:14:35.848Z</time></trkpt><trkpt lat="40.912712428953185" lon="8.703957773083726"><ele>16.0</ele><time>2026-05-01T10:14:36.848Z</time></trkpt><trkpt lat="40.91262580568764" lon="8.704049940579894"><ele>16.0</ele><time>2026-05-01T10:14:37.848Z</time></trkpt><trkpt lat="40.912541731901364" lon="8.704145131159176"><ele>15.0</ele><time>2026-05-01T10:14:38.848Z</time></trkpt><trkpt lat="40.912457355929334" lon="8.704261621841374"><ele>14.0</ele><time>2026-05-01T10:14:39.848Z</time></trkpt><trkpt lat="40.91237483427666" lon="8.704375652542533"><ele>13.0</ele><time>2026-05-01T10:14:40.848Z</time></trkpt><trkpt lat="40.91230448144628" lon="8.70448980385506"><ele>12.0</ele><time>2026-05-01T10:14:41.848Z</time></trkpt><trkpt lat="40.91223186993848" lon="8.704605893248974"><ele>16.0</ele><time>2026-05-01T10:14:42.848Z</time></trkpt><trkpt lat="40.91218251547209" lon="8.704740198173145"><ele>20.0</ele><time>2026-05-01T10:14:43.848Z</time></trkpt><trkpt lat="40.91214212647842" lon="8.704889733026777"><ele>24.0</ele><time>2026-05-01T10:14:44.848Z</time></trkpt><trkpt lat="40.91210884075556" lon="8.70503436674929"><ele>28.0</ele><time>2026-05-01T10:14:45.848Z</time></trkpt><trkpt lat="40.91208164418685" lon="8.705183509512002"><ele>29.75</ele><time>2026-05-01T10:14:46.848Z</time></trkpt><trkpt lat="40.91206753769564" lon="8.705301273926782"><ele>31.5</ele><time>2026-05-01T10:14:47.848Z</time></trkpt><trkpt lat="40.912009994412834" lon="8.705494780759478"><ele>33.25</ele><time>2026-05-01T10:14:48.848Z</time></trkpt><trkpt lat="40.91196447230287" lon="8.70563981214448"><ele>35.0</ele><time>2026-05-01T10:14:49.848Z</time></trkpt><trkpt lat="40.911907492038274" lon="8.7057921386386"><ele>35.0</ele><time>2026-05-01T10:14:50.848Z</time></trkpt><trkpt lat="40.91184784869531" lon="8.705926906208399"><ele>35.0</ele><time>2026-05-01T10:14:51.848Z</time></trkpt><trkpt lat="40.91178108013329" lon="8.706041725015364"><ele>35.0</ele><time>2026-05-01T10:14:52.848Z</time></trkpt><trkpt lat="40.91168633197521" lon="8.706105918600482"><ele>35.0</ele><time>2026-05-01T10:14:53.848Z</time></trkpt><trkpt lat="40.911597515128804" lon="8.706156044970205"><ele>35.0</ele><time>2026-05-01T10:14:54.848Z</time></trkpt><trkpt lat="40.91149904616428" lon="8.706175525675635"><ele>33.8</ele><time>2026-05-01T10:14:55.848Z</time></trkpt><trkpt lat="40.91139300545561" lon="8.706166045528802"><ele>32.6</ele><time>2026-05-01T10:14:56.848Z</time></trkpt><trkpt lat="40.91127952098313" lon="8.706152789224817"><ele>31.4</ele><time>2026-05-01T10:14:57.848Z</time></trkpt><trkpt lat="40.91116885885892" lon="8.706134574383713"><ele>30.2</ele><time>2026-05-01T10:14:58.848Z</time></trkpt><trkpt lat="40.91107584859146" lon="8.706117821353113"><ele>29.0</ele><time>2026-05-01T10:14:59.848Z</time></trkpt><trkpt lat="40.910997875617994" lon="8.706103687703258"><ele>25.333333333333332</ele><time>2026-05-01T10:15:00.848Z</time></trkpt><trkpt lat="40.91089956881826" lon="8.706101195966228"><ele>21.666666666666664</ele><time>2026-05-01T10:15:02.848Z</time></trkpt><trkpt lat="40.910782775309514" lon="8.70605422295288"><ele>18.0</ele><time>2026-05-01T10:15:22.848Z</time></trkpt><trkpt lat="40.910718532211654" lon="8.70602901734387"><ele>14.333333333333332</ele><time>2026-05-01T10:15:23.848Z</time></trkpt><trkpt lat="40.91065130733701" lon="8.705986565632912"><ele>10.666666666666668</ele><time>2026-05-01T10:15:24.848Z</time></trkpt><trkpt lat="40.91059389781649" lon="8.705936991898762"><ele>7.0</ele><time>2026-05-01T10:15:25.848Z</time></trkpt><trkpt lat="40.91051249739159" lon="8.705846331655053"><ele>6.666666666666667</ele><time>2026-05-01T10:15:27.848Z</time></trkpt><trkpt lat="40.910394156828396" lon="8.705776364322446"><ele>6.333333333333334</ele><time>2026-05-01T10:15:29.848Z</time></trkpt><trkpt lat="40.910319925861714" lon="8.705747394834562"><ele>6.0</ele><time>2026-05-01T10:15:30.848Z</time></trkpt><trkpt lat="40.910245560474145" lon="8.705733273248212"><ele>5.666666666666667</ele><time>2026-05-01T10:15:31.848Z</time></trkpt><trkpt lat="40.91016384704086" lon="8.705716011733951"><ele>5.333333333333334</ele><time>2026-05-01T10:15:32.848Z</time></trkpt><trkpt lat="40.91008575193191" lon="8.705733411920704"><ele>5.0</ele><time>2026-05-01T10:15:33.848Z</time></trkpt><trkpt lat="40.91001576519638" lon="8.705794769952531"><ele>5.0</ele><time>2026-05-01T10:15:34.848Z</time></trkpt><trkpt lat="40.90994803571396" lon="8.705854411180892"><ele>5.0</ele><time>2026-05-01T10:15:35.848Z</time></trkpt><trkpt lat="40.909882992025864" lon="8.705923054304728"><ele>5.0</ele><time>2026-05-01T10:15:36.848Z</time></trkpt><trkpt lat="40.9098180663376" lon="8.70601844826104"><ele>5.0</ele><time>2026-05-01T10:15:37.848Z</time></trkpt><trkpt lat="40.90974888285154" lon="8.70610459944572"><ele>5.0</ele><time>2026-05-01T10:15:38.848Z</time></trkpt><trkpt lat="40.909665105869905" lon="8.706171572867376"><ele>6.0</ele><time>2026-05-01T10:15:39.848Z</time></trkpt><trkpt lat="40.90956995231201" lon="8.706213786006382"><ele>7.0</ele><time>2026-05-01T10:15:40.848Z</time></trkpt><trkpt lat="40.90947220827577" lon="8.706226309522146"><ele>8.0</ele><time>2026-05-01T10:15:41.848Z</time></trkpt><trkpt lat="40.909372057224054" lon="8.70621486533209"><ele>9.0</ele><time>2026-05-01T10:15:42.848Z</time></trkpt><trkpt lat="40.909270358233634" lon="8.706205431872235"><ele>10.0</ele><time>2026-05-01T10:15:43.848Z</time></trkpt><trkpt lat="40.909159662435655" lon="8.706212056310774"><ele>10.0</ele><time>2026-05-01T10:15:44.848Z</time></trkpt><trkpt lat="40.9090408039305" lon="8.706236954231072"><ele>10.0</ele><time>2026-05-01T10:15:45.848Z</time></trkpt><trkpt lat="40.908916196844444" lon="8.70627261440123"><ele>10.0</ele><time>2026-05-01T10:15:46.848Z</time></trkpt><trkpt lat="40.90879250519242" lon="8.706319959638376"><ele>10.0</ele><time>2026-05-01T10:15:47.848Z</time></trkpt><trkpt lat="40.90867232635184" lon="8.706379233853779"><ele>10.0</ele><time>2026-05-01T10:15:48.848Z</time></trkpt><trkpt lat="40.90855962426511" lon="8.70641083301444"><ele>10.0</ele><time>2026-05-01T10:15:49.848Z</time></trkpt><trkpt lat="40.908442919516986" lon="8.706449636321146"><ele>10.0</ele><time>2026-05-01T10:15:50.848Z</time></trkpt><trkpt lat="40.90832885692459" lon="8.706478888889636"><ele>10.0</ele><time>2026-05-01T10:15:51.848Z</time></trkpt><trkpt lat="40.90821564671231" lon="8.706499922540566"><ele>9.5</ele><time>2026-05-01T10:15:52.848Z</time></trkpt><trkpt lat="40.90810498929302" lon="8.706509713276061"><ele>9.0</ele><time>2026-05-01T10:15:53.848Z</time></trkpt><trkpt lat="40.90799223996499" lon="8.706505678593304"><ele>8.5</ele><time>2026-05-01T10:15:54.848Z</time></trkpt><trkpt lat="40.90787941477453" lon="8.706496508682827"><ele>8.0</ele><time>2026-05-01T10:15:55.848Z</time></trkpt><trkpt lat="40.90776664760594" lon="8.706476946389476"><ele>8.0</ele><time>2026-05-01T10:15:56.848Z</time></trkpt><trkpt lat="40.90765540223151" lon="8.706451056370193"><ele>8.0</ele><time>2026-05-01T10:15:57.848Z</time></trkpt><trkpt lat="40.90753693874694" lon="8.70641096187599"><ele>8.0</ele><time>2026-05-01T10:15:58.848Z</time></trkpt><trkpt lat="40.90741681046284" lon="8.706354992277188"><ele>8.0</ele><time>2026-05-01T10:15:59.848Z</time></trkpt><trkpt lat="40.90729951413178" lon="8.706283570667283"><ele>8.0</ele><time>2026-05-01T10:16:00.848Z</time></trkpt><trkpt lat="40.90718401063659" lon="8.706200281374404"><ele>8.0</ele><time>2026-05-01T10:16:01.848Z</time></trkpt><trkpt lat="40.907070439346334" lon="8.706104975306083"><ele>8.0</ele><time>2026-05-01T10:16:02.848Z</time></trkpt><trkpt lat="40.90696063844659" lon="8.705995278719456"><ele>8.0</ele><time>2026-05-01T10:16:03.848Z</time></trkpt><trkpt lat="40.90685412057085" lon="8.705875954754733"><ele>8.0</ele><time>2026-05-01T10:16:04.848Z</time></trkpt><trkpt lat="40.90675142088774" lon="8.705742489661446"><ele>8.0</ele><time>2026-05-01T10:16:05.848Z</time></trkpt><trkpt lat="40.906660532290786" lon="8.70562142072235"><ele>8.0</ele><time>2026-05-01T10:16:06.848Z</time></trkpt><trkpt lat="40.906600993275994" lon="8.705537736129896"><ele>8.0</ele><time>2026-05-01T10:16:07.848Z</time></trkpt><trkpt lat="40.9065515908384" lon="8.705485119598762"><ele>8.0</ele><time>2026-05-01T10:19:42.847Z</time></trkpt><trkpt lat="40.90647490429448" lon="8.705401561084471"><ele>9.8</ele><time>2026-05-01T10:19:47.847Z</time></trkpt><trkpt lat="40.90638522478446" lon="8.705287461807844"><ele>11.600000000000001</ele><time>2026-05-01T10:19:49.847Z</time></trkpt><trkpt lat="40.90632888117486" lon="8.705218738808364"><ele>13.399999999999999</ele><time>2026-05-01T10:19:50.847Z</time></trkpt><trkpt lat="40.906266758504614" lon="8.705144342264665"><ele>15.2</ele><time>2026-05-01T10:19:51.847Z</time></trkpt><trkpt lat="40.906200117023616" lon="8.70506692431938"><ele>17.0</ele><time>2026-05-01T10:19:52.847Z</time></trkpt><trkpt lat="40.906130450166835" lon="8.704986409219169"><ele>19.4</ele><time>2026-05-01T10:19:53.847Z</time></trkpt><trkpt lat="40.90605515245854" lon="8.704904685362585"><ele>21.799999999999997</ele><time>2026-05-01T10:19:54.847Z</time></trkpt><trkpt lat="40.905983535224465" lon="8.704808627855531"><ele>24.2</ele><time>2026-05-01T10:19:55.847Z</time></trkpt><trkpt lat="40.90588830642717" lon="8.704757885858069"><ele>26.599999999999998</ele><time>2026-05-01T10:19:56.847Z</time></trkpt><trkpt lat="40.905794961303926" lon="8.704709133658293"><ele>29.0</ele><time>2026-05-01T10:19:57.847Z</time></trkpt><trkpt lat="40.905704439764456" lon="8.70466177415078"><ele>29.25</ele><time>2026-05-01T10:19:58.847Z</time></trkpt><trkpt lat="40.90559878807101" lon="8.704645961531307"><ele>29.5</ele><time>2026-05-01T10:19:59.847Z</time></trkpt><trkpt lat="40.90548858804437" lon="8.704637531132503"><ele>29.75</ele><time>2026-05-01T10:20:00.847Z</time></trkpt><trkpt lat="40.90536291682552" lon="8.70465264464742"><ele>30.0</ele><time>2026-05-01T10:20:01.847Z</time></trkpt><trkpt lat="40.905244706947165" lon="8.704687437551422"><ele>30.0</ele><time>2026-05-01T10:20:02.847Z</time></trkpt><trkpt lat="40.905125720811554" lon="8.70475454528172"><ele>30.0</ele><time>2026-05-01T10:20:03.847Z</time></trkpt><trkpt lat="40.90502012432083" lon="8.704850193513392"><ele>30.0</ele><time>2026-05-01T10:20:04.847Z</time></trkpt><trkpt lat="40.9049181574892" lon="8.70491300398086"><ele>30.0</ele><time>2026-05-01T10:20:05.847Z</time></trkpt><trkpt lat="40.904830893039176" lon="8.704969587285992"><ele>30.0</ele><time>2026-05-01T10:20:06.847Z</time></trkpt><trkpt lat="40.904757496711895" lon="8.705018802740302"><ele>30.0</ele><time>2026-05-01T10:20:07.847Z</time></trkpt><trkpt lat="40.90469923592795" lon="8.705065564009251"><ele>30.0</ele><time>2026-05-01T10:20:08.847Z</time></trkpt><trkpt lat="40.90461692210361" lon="8.705109423701243"><ele>30.0</ele><time>2026-05-01T10:20:10.847Z</time></trkpt><trkpt lat="40.90467555815338" lon="8.705068668876477"><ele>30.0</ele><time>2026-05-01T10:20:20.847Z</time></trkpt><trkpt lat="40.90474577669537" lon="8.705019128750038"><ele>30.0</ele><time>2026-05-01T10:20:23.846Z</time></trkpt><trkpt lat="40.90483695862497" lon="8.704954647597162"><ele>30.0</ele><time>2026-05-01T10:20:26.846Z</time></trkpt><trkpt lat="40.90492506708607" lon="8.70489231804617"><ele>30.0</ele><time>2026-05-01T10:20:28.846Z</time></trkpt><trkpt lat="40.905002496281654" lon="8.704838735445005"><ele>30.0</ele><time>2026-05-01T10:20:30.846Z</time></trkpt><trkpt lat="40.90513463543144" lon="8.704751559797648"><ele>30.0</ele><time>2026-05-01T10:20:32.846Z</time></trkpt><trkpt lat="40.90521899806515" lon="8.704740826742658"><ele>30.0</ele><time>2026-05-01T10:20:33.846Z</time></trkpt><trkpt lat="40.9052803150117" lon="8.704698686365495"><ele>30.0</ele><time>2026-05-01T10:20:34.846Z</time></trkpt><trkpt lat="40.905345639487074" lon="8.70467226704884"><ele>30.0</ele><time>2026-05-01T10:20:35.846Z</time></trkpt><trkpt lat="40.905408247875506" lon="8.70465450467538"><ele>30.0</ele><time>2026-05-01T10:20:36.846Z</time></trkpt><trkpt lat="40.90549202072981" lon="8.704623716879405"><ele>30.0</ele><time>2026-05-01T10:20:38.846Z</time></trkpt><trkpt lat="40.905544361533245" lon="8.704550951305958"><ele>30.0</ele><time>2026-05-01T10:20:40.846Z</time></trkpt><trkpt lat="40.9055443963265" lon="8.704418657358099"><ele>30.0</ele><time>2026-05-01T10:20:42.846Z</time></trkpt><trkpt lat="40.90549407430718" lon="8.704303047328269"><ele>32.0</ele><time>2026-05-01T10:20:44.846Z</time></trkpt><trkpt lat="40.90541547478265" lon="8.704187841829736"><ele>34.0</ele><time>2026-05-01T10:20:46.846Z</time></trkpt><trkpt lat="40.905345759073825" lon="8.70414126866307"><ele>36.0</ele><time>2026-05-01T10:20:48.846Z</time></trkpt><trkpt lat="40.90528039621668" lon="8.704089878503922"><ele>38.0</ele><time>2026-05-01T10:20:51.846Z</time></trkpt><trkpt lat="40.90522495913552" lon="8.704031397689114"><ele>40.0</ele><time>2026-05-01T10:20:53.846Z</time></trkpt><trkpt lat="40.905166558916186" lon="8.703905668456597"><ele>40.0</ele><time>2026-05-01T10:20:55.846Z</time></trkpt><trkpt lat="40.905127078077086" lon="8.70381595432197"><ele>40.0</ele><time>2026-05-01T10:20:56.846Z</time></trkpt><trkpt lat="40.90507694794618" lon="8.70373684245054"><ele>40.0</ele><time>2026-05-01T10:20:57.846Z</time></trkpt><trkpt lat="40.905019009070394" lon="8.703657822294467"><ele>40.0</ele><time>2026-05-01T10:20:58.846Z</time></trkpt><trkpt lat="40.90496171159669" lon="8.703605143418912"><ele>40.0</ele><time>2026-05-01T10:20:59.846Z</time></trkpt><trkpt lat="40.904866200215494" lon="8.703487700303162"><ele>40.0</ele><time>2026-05-01T10:21:01.846Z</time></trkpt><trkpt lat="40.90481529063889" lon="8.703422619721051"><ele>40.66666666666667</ele><time>2026-05-01T10:21:02.846Z</time></trkpt><trkpt lat="40.90476044662264" lon="8.70334571833716"><ele>41.333333333333336</ele><time>2026-05-01T10:21:03.846Z</time></trkpt><trkpt lat="40.90470077267472" lon="8.703282117107037"><ele>42.0</ele><time>2026-05-01T10:21:04.846Z</time></trkpt><trkpt lat="40.90462187564205" lon="8.703210898550932"><ele>42.666666666666664</ele><time>2026-05-01T10:21:05.846Z</time></trkpt><trkpt lat="40.90456122515251" lon="8.703134210512154"><ele>43.33333333333333</ele><time>2026-05-01T10:21:06.846Z</time></trkpt><trkpt lat="40.904496387765725" lon="8.703040839253065"><ele>44.0</ele><time>2026-05-01T10:21:07.846Z</time></trkpt><trkpt lat="40.90443095452963" lon="8.702963863645971"><ele>44.0</ele><time>2026-05-01T10:21:08.846Z</time></trkpt><trkpt lat="40.90436958282812" lon="8.702873870207611"><ele>44.0</ele><time>2026-05-01T10:21:09.846Z</time></trkpt><trkpt lat="40.904298882485456" lon="8.702779977548056"><ele>44.0</ele><time>2026-05-01T10:21:10.846Z</time></trkpt><trkpt lat="40.90422464820173" lon="8.70267986471717"><ele>44.0</ele><time>2026-05-01T10:21:11.846Z</time></trkpt><trkpt lat="40.90415690255246" lon="8.70258762491918"><ele>44.0</ele><time>2026-05-01T10:21:12.846Z</time></trkpt><trkpt lat="40.90409168332994" lon="8.702505850335703"><ele>44.83333333333333</ele><time>2026-05-01T10:21:13.846Z</time></trkpt><trkpt lat="40.90403352131539" lon="8.702436549684077"><ele>45.666666666666664</ele><time>2026-05-01T10:21:14.846Z</time></trkpt><trkpt lat="40.903973113619585" lon="8.702377267588846"><ele>46.5</ele><time>2026-05-01T10:21:15.846Z</time></trkpt><trkpt lat="40.90390169160047" lon="8.70232100297816"><ele>47.33333333333333</ele><time>2026-05-01T10:21:16.846Z</time></trkpt><trkpt lat="40.903825150494136" lon="8.702272043137137"><ele>48.166666666666664</ele><time>2026-05-01T10:21:17.846Z</time></trkpt><trkpt lat="40.903747613908656" lon="8.702230909981681"><ele>49.0</ele><time>2026-05-01T10:21:18.846Z</time></trkpt><trkpt lat="40.903666259975225" lon="8.702195589017666"><ele>48.99999999999999</ele><time>2026-05-01T10:21:19.846Z</time></trkpt><trkpt lat="40.9035806363416" lon="8.702160107663037"><ele>49.0</ele><time>2026-05-01T10:21:20.846Z</time></trkpt><trkpt lat="40.90350271148745" lon="8.702124491564932"><ele>49.0</ele><time>2026-05-01T10:21:21.846Z</time></trkpt><trkpt lat="40.90343706835971" lon="8.702084708280672"><ele>49.0</ele><time>2026-05-01T10:21:22.846Z</time></trkpt><trkpt lat="40.90337088836327" lon="8.70203379629689"><ele>48.99999999999999</ele><time>2026-05-01T10:21:23.846Z</time></trkpt><trkpt lat="40.90330840708731" lon="8.701983098300147"><ele>49.0</ele><time>2026-05-01T10:21:24.846Z</time></trkpt><trkpt lat="40.903248724974866" lon="8.701938093255237"><ele>49.800000000000004</ele><time>2026-05-01T10:21:25.846Z</time></trkpt><trkpt lat="40.90318989909413" lon="8.701850656292834"><ele>50.6</ele><time>2026-05-01T10:21:27.846Z</time></trkpt><trkpt lat="40.903201935729015" lon="8.701743439471961"><ele>51.4</ele><time>2026-05-01T10:21:29.846Z</time></trkpt><trkpt lat="40.90317675260137" lon="8.701655119965691"><ele>52.2</ele><time>2026-05-01T10:21:30.846Z</time></trkpt><trkpt lat="40.903154153264296" lon="8.701485920618772"><ele>53.0</ele><time>2026-05-01T10:21:32.846Z</time></trkpt><trkpt lat="40.90312281523694" lon="8.701374184289435"><ele>53.0</ele><time>2026-05-01T10:21:33.846Z</time></trkpt><trkpt lat="40.903084230474775" lon="8.701247122777493"><ele>53.0</ele><time>2026-05-01T10:21:34.846Z</time></trkpt><trkpt lat="40.90304813874471" lon="8.70112490223815"><ele>53.0</ele><time>2026-05-01T10:21:35.846Z</time></trkpt><trkpt lat="40.9030125848785" lon="8.70100595132561"><ele>53.0</ele><time>2026-05-01T10:21:36.846Z</time></trkpt><trkpt lat="40.90298011705088" lon="8.700893229309742"><ele>53.0</ele><time>2026-05-01T10:21:37.846Z</time></trkpt><trkpt lat="40.90294576357454" lon="8.700779101503553"><ele>53.50000000000001</ele><time>2026-05-01T10:21:38.846Z</time></trkpt><trkpt lat="40.90291424146415" lon="8.700668220448518"><ele>54.0</ele><time>2026-05-01T10:21:39.846Z</time></trkpt><trkpt lat="40.902895917626864" lon="8.700566820548154"><ele>54.5</ele><time>2026-05-01T10:21:40.846Z</time></trkpt><trkpt lat="40.90286897331915" lon="8.70046024376922"><ele>55.0</ele><time>2026-05-01T10:21:41.846Z</time></trkpt><trkpt lat="40.902836663685285" lon="8.700350516139869"><ele>55.50000000000001</ele><time>2026-05-01T10:21:42.846Z</time></trkpt><trkpt lat="40.902796806257896" lon="8.70024288823427"><ele>56.0</ele><time>2026-05-01T10:21:43.846Z</time></trkpt><trkpt lat="40.902751763246904" lon="8.700128155448397"><ele>57.0</ele><time>2026-05-01T10:21:44.846Z</time></trkpt><trkpt lat="40.902706148897636" lon="8.700017130733926"><ele>57.99999999999999</ele><time>2026-05-01T10:21:45.846Z</time></trkpt><trkpt lat="40.90265495640312" lon="8.699913787506004"><ele>58.99999999999999</ele><time>2026-05-01T10:21:46.846Z</time></trkpt><trkpt lat="40.902598453307014" lon="8.699806307770784"><ele>60.0</ele><time>2026-05-01T10:21:47.846Z</time></trkpt><trkpt lat="40.902542857822574" lon="8.69968762773151"><ele>61.0</ele><time>2026-05-01T10:21:48.846Z</time></trkpt><trkpt lat="40.90250064982488" lon="8.699576127883029"><ele>60.99999999999999</ele><time>2026-05-01T10:21:49.846Z</time></trkpt><trkpt lat="40.902471762958136" lon="8.699476750878002"><ele>61.0</ele><time>2026-05-01T10:21:50.846Z</time></trkpt><trkpt lat="40.9024524621743" lon="8.69937610609353"><ele>60.99999999999999</ele><time>2026-05-01T10:21:51.846Z</time></trkpt><trkpt lat="40.9023951224446" lon="8.699301819144207"><ele>60.99999999999999</ele><time>2026-05-01T10:21:52.846Z</time></trkpt><trkpt lat="40.902361063752515" lon="8.69922148260905"><ele>61.0</ele><time>2026-05-01T10:21:53.846Z</time></trkpt><trkpt lat="40.902337493649135" lon="8.699138699868948"><ele>60.99999999999999</ele><time>2026-05-01T10:21:54.846Z</time></trkpt><trkpt lat="40.90232955496819" lon="8.699053453883069"><ele>60.99999999999999</ele><time>2026-05-01T10:21:55.846Z</time></trkpt><trkpt lat="40.90232472498316" lon="8.698961104907767"><ele>60.99999999999999</ele><time>2026-05-01T10:21:56.846Z</time></trkpt><trkpt lat="40.902323961549946" lon="8.69886505193985"><ele>61.0</ele><time>2026-05-01T10:21:57.846Z</time></trkpt><trkpt lat="40.902320255427306" lon="8.698754509551359"><ele>61.0</ele><time>2026-05-01T10:21:58.846Z</time></trkpt><trkpt lat="40.90232387976932" lon="8.698646470310146"><ele>61.0</ele><time>2026-05-01T10:21:59.846Z</time></trkpt><trkpt lat="40.90233422924149" lon="8.698549111780714"><ele>60.99999999999999</ele><time>2026-05-01T10:22:00.846Z</time></trkpt><trkpt lat="40.902344842893946" lon="8.698452189485572"><ele>61.0</ele><time>2026-05-01T10:22:01.846Z</time></trkpt><trkpt lat="40.90235122702417" lon="8.69836014727742"><ele>60.33333333333333</ele><time>2026-05-01T10:22:02.846Z</time></trkpt><trkpt lat="40.90234913788087" lon="8.69826797030013"><ele>59.666666666666664</ele><time>2026-05-01T10:22:03.846Z</time></trkpt><trkpt lat="40.902338537440926" lon="8.698175089802161"><ele>59.0</ele><time>2026-05-01T10:22:04.846Z</time></trkpt><trkpt lat="40.902324557077186" lon="8.698084620312668"><ele>58.33333333333333</ele><time>2026-05-01T10:22:05.846Z</time></trkpt><trkpt lat="40.902319897642585" lon="8.697931636537975"><ele>57.666666666666664</ele><time>2026-05-01T10:22:07.846Z</time></trkpt><trkpt lat="40.90226993945863" lon="8.697791107626028"><ele>57.0</ele><time>2026-05-01T10:22:09.846Z</time></trkpt><trkpt lat="40.90221996331363" lon="8.69768457819694"><ele>56.2</ele><time>2026-05-01T10:22:11.846Z</time></trkpt><trkpt lat="40.902144126301614" lon="8.697588081218004"><ele>55.400000000000006</ele><time>2026-05-01T10:22:13.846Z</time></trkpt><trkpt lat="40.90205341836598" lon="8.697474896533288"><ele>54.599999999999994</ele><time>2026-05-01T10:22:15.846Z</time></trkpt><trkpt lat="40.90201042114955" lon="8.69741025344534"><ele>53.8</ele><time>2026-05-01T10:22:16.846Z</time></trkpt><trkpt lat="40.901919025929274" lon="8.697306546598046"><ele>53.0</ele><time>2026-05-01T10:22:18.846Z</time></trkpt><trkpt lat="40.90186559536123" lon="8.697237145398681"><ele>53.00000000000001</ele><time>2026-05-01T10:22:19.846Z</time></trkpt><trkpt lat="40.90180076849874" lon="8.697185008799643"><ele>53.0</ele><time>2026-05-01T10:22:20.846Z</time></trkpt><trkpt lat="40.901733490534156" lon="8.697143908711997"><ele>53.0</ele><time>2026-05-01T10:22:21.846Z</time></trkpt><trkpt lat="40.90165539671396" lon="8.697105201130926"><ele>53.0</ele><time>2026-05-01T10:22:22.845Z</time></trkpt><trkpt lat="40.90157871340975" lon="8.697068619893049"><ele>53.00000000000001</ele><time>2026-05-01T10:22:23.845Z</time></trkpt><trkpt lat="40.901502081637425" lon="8.697038844811235"><ele>53.0</ele><time>2026-05-01T10:22:24.845Z</time></trkpt><trkpt lat="40.90142487469275" lon="8.696991621313439"><ele>51.50000000000001</ele><time>2026-05-01T10:22:25.845Z</time></trkpt><trkpt lat="40.901344015473434" lon="8.696939394294871"><ele>50.0</ele><time>2026-05-01T10:22:26.845Z</time></trkpt><trkpt lat="40.901265237472046" lon="8.69689411016757"><ele>48.5</ele><time>2026-05-01T10:22:27.845Z</time></trkpt><trkpt lat="40.90118982676203" lon="8.696842468010246"><ele>47.0</ele><time>2026-05-01T10:22:28.844Z</time></trkpt><trkpt lat="40.90112266618729" lon="8.696775189433577"><ele>45.5</ele><time>2026-05-01T10:22:29.844Z</time></trkpt><trkpt lat="40.901053977256666" lon="8.696701906728105"><ele>44.0</ele><time>2026-05-01T10:22:30.844Z</time></trkpt><trkpt lat="40.900990957281856" lon="8.696638216346283"><ele>44.166666666666664</ele><time>2026-05-01T10:22:31.845Z</time></trkpt><trkpt lat="40.90092996311154" lon="8.69657638527722"><ele>44.33333333333333</ele><time>2026-05-01T10:22:32.845Z</time></trkpt><trkpt lat="40.90088167045514" lon="8.696510998275434"><ele>44.5</ele><time>2026-05-01T10:22:33.845Z</time></trkpt><trkpt lat="40.900833948081676" lon="8.696373647006604"><ele>44.666666666666664</ele><time>2026-05-01T10:22:35.844Z</time></trkpt><trkpt lat="40.90082728817292" lon="8.69627133427579"><ele>44.833333333333336</ele><time>2026-05-01T10:22:36.844Z</time></trkpt><trkpt lat="40.900797109817894" lon="8.69616708014992"><ele>45.0</ele><time>2026-05-01T10:22:37.844Z</time></trkpt><trkpt lat="40.900759363833245" lon="8.696049821755848"><ele>44.2</ele><time>2026-05-01T10:22:38.844Z</time></trkpt><trkpt lat="40.900725796510585" lon="8.695950236036099"><ele>43.4</ele><time>2026-05-01T10:22:39.844Z</time></trkpt><trkpt lat="40.90067343435466" lon="8.695820112908985"><ele>42.599999999999994</ele><time>2026-05-01T10:22:41.844Z</time></trkpt><trkpt lat="40.90063439215991" lon="8.695732947770054"><ele>41.8</ele><time>2026-05-01T10:22:43.844Z</time></trkpt><trkpt lat="40.90050902697125" lon="8.695761308158396"><ele>41.0</ele><time>2026-05-01T10:22:44.844Z</time></trkpt><trkpt lat="40.90044187712183" lon="8.695721565009272"><ele>41.0</ele><time>2026-05-01T10:22:45.844Z</time></trkpt><trkpt lat="40.90036829934621" lon="8.695666345895097"><ele>41.0</ele><time>2026-05-01T10:22:46.844Z</time></trkpt><trkpt lat="40.900294205379815" lon="8.695606272513857"><ele>41.0</ele><time>2026-05-01T10:22:47.844Z</time></trkpt><trkpt lat="40.900232260577404" lon="8.695531535785424"><ele>41.0</ele><time>2026-05-01T10:22:48.844Z</time></trkpt><trkpt lat="40.90016037207983" lon="8.69547796857063"><ele>41.0</ele><time>2026-05-01T10:22:49.844Z</time></trkpt><trkpt lat="40.90009173902688" lon="8.695426827126193"><ele>41.0</ele><time>2026-05-01T10:22:50.844Z</time></trkpt><trkpt lat="40.900017996152634" lon="8.695395454631596"><ele>41.5</ele><time>2026-05-01T10:22:51.844Z</time></trkpt><trkpt lat="40.899956583009484" lon="8.69535141377516"><ele>42.0</ele><time>2026-05-01T10:22:52.844Z</time></trkpt><trkpt lat="40.899896580926345" lon="8.695291046563126"><ele>42.5</ele><time>2026-05-01T10:22:53.844Z</time></trkpt><trkpt lat="40.89983461059548" lon="8.695249271298145"><ele>43.0</ele><time>2026-05-01T10:22:54.844Z</time></trkpt><trkpt lat="40.899779837113904" lon="8.695195850443575"><ele>43.5</ele><time>2026-05-01T10:22:55.844Z</time></trkpt><trkpt lat="40.89968208809386" lon="8.695085281160143"><ele>44.0</ele><time>2026-05-01T10:22:57.844Z</time></trkpt><trkpt lat="40.89963567363199" lon="8.695028062078396"><ele>44.0</ele><time>2026-05-01T10:22:58.844Z</time></trkpt><trkpt lat="40.89954699100571" lon="8.694914884394048"><ele>44.0</ele><time>2026-05-01T10:23:00.844Z</time></trkpt><trkpt lat="40.899464371646374" lon="8.694817022867417"><ele>44.0</ele><time>2026-05-01T10:23:02.844Z</time></trkpt><trkpt lat="40.899371999624115" lon="8.694703070725671"><ele>44.0</ele><time>2026-05-01T10:23:04.844Z</time></trkpt><trkpt lat="40.899317332957466" lon="8.694643968191961"><ele>44.0</ele><time>2026-05-01T10:23:05.844Z</time></trkpt><trkpt lat="40.89926458689265" lon="8.694583821021745"><ele>43.83333333333333</ele><time>2026-05-01T10:23:06.844Z</time></trkpt><trkpt lat="40.89920661149655" lon="8.694518874464157"><ele>43.666666666666664</ele><time>2026-05-01T10:23:07.844Z</time></trkpt><trkpt lat="40.899146491502954" lon="8.694443520948361"><ele>43.5</ele><time>2026-05-01T10:23:08.844Z</time></trkpt><trkpt lat="40.899092242239625" lon="8.694372429760886"><ele>43.333333333333336</ele><time>2026-05-01T10:23:09.844Z</time></trkpt><trkpt lat="40.89904057253712" lon="8.69429991719937"><ele>43.16666666666667</ele><time>2026-05-01T10:23:10.844Z</time></trkpt><trkpt lat="40.89898305814775" lon="8.694219081884553"><ele>43.0</ele><time>2026-05-01T10:23:11.844Z</time></trkpt><trkpt lat="40.89893511831634" lon="8.694141266264952"><ele>42.28571428571429</ele><time>2026-05-01T10:23:12.844Z</time></trkpt><trkpt lat="40.89888516829407" lon="8.694065828814903"><ele>41.57142857142857</ele><time>2026-05-01T10:23:13.844Z</time></trkpt><trkpt lat="40.898837876755785" lon="8.69399178796172"><ele>40.85714285714286</ele><time>2026-05-01T10:23:14.844Z</time></trkpt><trkpt lat="40.89880537197005" lon="8.69390718188777"><ele>40.142857142857146</ele><time>2026-05-01T10:23:15.844Z</time></trkpt><trkpt lat="40.89875257351994" lon="8.693846783135648"><ele>39.42857142857143</ele><time>2026-05-01T10:23:16.844Z</time></trkpt><trkpt lat="40.89868487816947" lon="8.693814206000646"><ele>38.714285714285715</ele><time>2026-05-01T10:23:17.844Z</time></trkpt><trkpt lat="40.898620378804516" lon="8.6937697685865"><ele>38.0</ele><time>2026-05-01T10:23:18.844Z</time></trkpt><trkpt lat="40.89855412872735" lon="8.693737826758296"><ele>38.0</ele><time>2026-05-01T10:23:19.844Z</time></trkpt><trkpt lat="40.89848163753678" lon="8.693716278367667"><ele>38.0</ele><time>2026-05-01T10:23:20.844Z</time></trkpt><trkpt lat="40.89840898533715" lon="8.6936693164173"><ele>38.0</ele><time>2026-05-01T10:23:21.844Z</time></trkpt><trkpt lat="40.89832870303945" lon="8.693636777651212"><ele>38.0</ele><time>2026-05-01T10:23:22.844Z</time></trkpt><trkpt lat="40.89825295247403" lon="8.693602639515118"><ele>38.0</ele><time>2026-05-01T10:23:23.844Z</time></trkpt><trkpt lat="40.89817373775854" lon="8.693567269873109"><ele>38.0</ele><time>2026-05-01T10:23:24.844Z</time></trkpt><trkpt lat="40.8981025481047" lon="8.693551026145629"><ele>36.4</ele><time>2026-05-01T10:23:25.844Z</time></trkpt><trkpt lat="40.898039502857976" lon="8.693527971241638"><ele>34.8</ele><time>2026-05-01T10:23:26.844Z</time></trkpt><trkpt lat="40.89797283928055" lon="8.693523603225188"><ele>33.2</ele><time>2026-05-01T10:23:27.844Z</time></trkpt><trkpt lat="40.89791033435105" lon="8.693537678810227"><ele>31.6</ele><time>2026-05-01T10:23:28.844Z</time></trkpt><trkpt lat="40.89778755641473" lon="8.693573872371141"><ele>30.0</ele><time>2026-05-01T10:23:30.844Z</time></trkpt><trkpt lat="40.897656207787705" lon="8.69355278316574"><ele>30.0</ele><time>2026-05-01T10:23:32.844Z</time></trkpt><trkpt lat="40.89758590853326" lon="8.69352984467732"><ele>30.0</ele><time>2026-05-01T10:23:33.844Z</time></trkpt><trkpt lat="40.89752763157002" lon="8.693484644639533"><ele>30.0</ele><time>2026-05-01T10:23:34.844Z</time></trkpt><trkpt lat="40.89746513571731" lon="8.693473607640918"><ele>30.0</ele><time>2026-05-01T10:23:35.844Z</time></trkpt><trkpt lat="40.89739252584764" lon="8.693514226779742"><ele>30.0</ele><time>2026-05-01T10:23:37.844Z</time></trkpt><trkpt lat="40.897300318150734" lon="8.693526477443074"><ele>30.0</ele><time>2026-05-01T10:23:46.844Z</time></trkpt><trkpt lat="40.897187684577" lon="8.693510107572902"><ele>30.285714285714285</ele><time>2026-05-01T10:23:48.844Z</time></trkpt><trkpt lat="40.897124959457024" lon="8.693499169217866"><ele>30.57142857142857</ele><time>2026-05-01T10:23:49.844Z</time></trkpt><trkpt lat="40.89705986449479" lon="8.69343452345566"><ele>30.857142857142854</ele><time>2026-05-01T10:23:50.844Z</time></trkpt><trkpt lat="40.896984497827354" lon="8.69342892610413"><ele>31.142857142857142</ele><time>2026-05-01T10:23:51.844Z</time></trkpt><trkpt lat="40.896918452082595" lon="8.693424954508522"><ele>31.428571428571423</ele><time>2026-05-01T10:23:52.844Z</time></trkpt><trkpt lat="40.89685252588479" lon="8.693418867707964"><ele>31.71428571428571</ele><time>2026-05-01T10:23:53.844Z</time></trkpt><trkpt lat="40.89677800647451" lon="8.693437615278485"><ele>32.0</ele><time>2026-05-01T10:23:54.844Z</time></trkpt><trkpt lat="40.89671553465096" lon="8.693415404773603"><ele>32.33333333333333</ele><time>2026-05-01T10:23:55.844Z</time></trkpt><trkpt lat="40.89665112253559" lon="8.693405345100915"><ele>32.666666666666664</ele><time>2026-05-01T10:23:56.844Z</time></trkpt><trkpt lat="40.89654598644372" lon="8.693429629514286"><ele>33.0</ele><time>2026-05-01T10:23:58.844Z</time></trkpt><trkpt lat="40.896482734294615" lon="8.69347063044651"><ele>33.333333333333336</ele><time>2026-05-01T10:23:59.844Z</time></trkpt><trkpt lat="40.8964105693055" lon="8.693511769284571"><ele>33.66666666666667</ele><time>2026-05-01T10:24:00.844Z</time></trkpt><trkpt lat="40.89634316470249" lon="8.693548488725249"><ele>34.0</ele><time>2026-05-01T10:24:01.844Z</time></trkpt><trkpt lat="40.89626489543877" lon="8.693594908066112"><ele>36.16666666666667</ele><time>2026-05-01T10:24:02.844Z</time></trkpt><trkpt lat="40.896190107701166" lon="8.693637855738007"><ele>38.333333333333336</ele><time>2026-05-01T10:24:03.844Z</time></trkpt><trkpt lat="40.89612905358011" lon="8.69369068799614"><ele>40.5</ele><time>2026-05-01T10:24:04.844Z</time></trkpt><trkpt lat="40.896043139153754" lon="8.693757931093657"><ele>42.666666666666664</ele><time>2026-05-01T10:24:06.844Z</time></trkpt><trkpt lat="40.89596958460638" lon="8.69375487586579"><ele>44.83333333333333</ele><time>2026-05-01T10:24:08.844Z</time></trkpt><trkpt lat="40.895914346189365" lon="8.693690930496066"><ele>47.0</ele><time>2026-05-01T10:24:10.844Z</time></trkpt><trkpt lat="40.8958303176002" lon="8.69360557719187"><ele>44.666666666666664</ele><time>2026-05-01T10:24:12.844Z</time></trkpt><trkpt lat="40.89573458470576" lon="8.693517431703004"><ele>42.33333333333333</ele><time>2026-05-01T10:24:14.844Z</time></trkpt><trkpt lat="40.89567223910676" lon="8.693460751030427"><ele>40.0</ele><time>2026-05-01T10:24:15.844Z</time></trkpt><trkpt lat="40.89560547351914" lon="8.693407344590971"><ele>37.666666666666664</ele><time>2026-05-01T10:24:16.844Z</time></trkpt><trkpt lat="40.89556753189199" lon="8.693332426201513"><ele>35.333333333333336</ele><time>2026-05-01T10:24:17.844Z</time></trkpt><trkpt lat="40.895540521516324" lon="8.693214115173916"><ele>33.0</ele><time>2026-05-01T10:24:19.844Z</time></trkpt><trkpt lat="40.895582332732054" lon="8.693115558194252"><ele>33.0</ele><time>2026-05-01T10:24:21.844Z</time></trkpt><trkpt lat="40.89559844486878" lon="8.692960555589318"><ele>33.0</ele><time>2026-05-01T10:24:23.844Z</time></trkpt><trkpt lat="40.895589533033395" lon="8.692874709158307"><ele>33.0</ele><time>2026-05-01T10:24:24.844Z</time></trkpt><trkpt lat="40.895567082887844" lon="8.692767894100022"><ele>33.0</ele><time>2026-05-01T10:24:25.844Z</time></trkpt><trkpt lat="40.8955394911375" lon="8.692662987303652"><ele>33.0</ele><time>2026-05-01T10:24:26.844Z</time></trkpt><trkpt lat="40.895516363364386" lon="8.69256254969743"><ele>33.0</ele><time>2026-05-01T10:24:27.844Z</time></trkpt><trkpt lat="40.89549300969193" lon="8.692480851634409"><ele>32.5</ele><time>2026-05-01T10:24:28.843Z</time></trkpt><trkpt lat="40.895478650557706" lon="8.69237550143471"><ele>32.0</ele><time>2026-05-01T10:24:30.842Z</time></trkpt><trkpt lat="40.89550068493618" lon="8.692287617741155"><ele>31.5</ele><time>2026-05-01T10:24:34.843Z</time></trkpt><trkpt lat="40.89553892734242" lon="8.692210451349116"><ele>31.0</ele><time>2026-05-01T10:24:36.842Z</time></trkpt><trkpt lat="40.8956175282287" lon="8.69216357254735"><ele>30.5</ele><time>2026-05-01T10:24:38.843Z</time></trkpt><trkpt lat="40.89568323359109" lon="8.69206364269031"><ele>30.0</ele><time>2026-05-01T10:24:40.843Z</time></trkpt><trkpt lat="40.895767411888066" lon="8.691936063130735"><ele>31.333333333333332</ele><time>2026-05-01T10:24:42.843Z</time></trkpt><trkpt lat="40.895802831102436" lon="8.691863379816862"><ele>32.666666666666664</ele><time>2026-05-01T10:24:43.843Z</time></trkpt><trkpt lat="40.895863910859354" lon="8.691767520968513"><ele>34.0</ele><time>2026-05-01T10:24:45.843Z</time></trkpt><trkpt lat="40.895847111869294" lon="8.6916867662933"><ele>35.33333333333333</ele><time>2026-05-01T10:24:47.843Z</time></trkpt><trkpt lat="40.89574796123347" lon="8.691569000281076"><ele>36.666666666666664</ele><time>2026-05-01T10:24:49.843Z</time></trkpt><trkpt lat="40.89568138814157" lon="8.691502330762676"><ele>38.0</ele><time>2026-05-01T10:24:50.843Z</time></trkpt><trkpt lat="40.895616624766745" lon="8.691418378403634"><ele>38.0</ele><time>2026-05-01T10:24:51.843Z</time></trkpt><trkpt lat="40.895554129594" lon="8.691369007915853"><ele>38.0</ele><time>2026-05-01T10:24:52.843Z</time></trkpt><trkpt lat="40.89548224392931" lon="8.691297719688325"><ele>38.0</ele><time>2026-05-01T10:24:53.843Z</time></trkpt><trkpt lat="40.895390967555514" lon="8.691230115978566"><ele>38.0</ele><time>2026-05-01T10:24:54.843Z</time></trkpt><trkpt lat="40.89530863723516" lon="8.69118157207575"><ele>38.0</ele><time>2026-05-01T10:24:55.843Z</time></trkpt><trkpt lat="40.895223204339004" lon="8.691137395354598"><ele>38.0</ele><time>2026-05-01T10:24:56.843Z</time></trkpt><trkpt lat="40.895139722548755" lon="8.691093109211995"><ele>39.166666666666664</ele><time>2026-05-01T10:24:57.843Z</time></trkpt><trkpt lat="40.895067436084545" lon="8.691046588451675"><ele>40.33333333333333</ele><time>2026-05-01T10:24:58.843Z</time></trkpt><trkpt lat="40.89499769595349" lon="8.690990157433443"><ele>41.5</ele><time>2026-05-01T10:24:59.843Z</time></trkpt><trkpt lat="40.89493565191763" lon="8.69092718589018"><ele>42.666666666666664</ele><time>2026-05-01T10:25:00.843Z</time></trkpt><trkpt lat="40.89488706523072" lon="8.690836268350292"><ele>43.833333333333336</ele><time>2026-05-01T10:25:01.843Z</time></trkpt><trkpt lat="40.89483531954366" lon="8.690737255472454"><ele>45.0</ele><time>2026-05-01T10:25:02.843Z</time></trkpt><trkpt lat="40.8947916599127" lon="8.690658339834966"><ele>45.0</ele><time>2026-05-01T10:25:03.843Z</time></trkpt><trkpt lat="40.894754994382176" lon="8.690573051539564"><ele>45.0</ele><time>2026-05-01T10:25:04.843Z</time></trkpt><trkpt lat="40.894728401192" lon="8.69048827549561"><ele>45.0</ele><time>2026-05-01T10:25:05.843Z</time></trkpt><trkpt lat="40.89469833189842" lon="8.690326660292234"><ele>45.0</ele><time>2026-05-01T10:25:07.843Z</time></trkpt><trkpt lat="40.89468384176961" lon="8.690244513263606"><ele>45.0</ele><time>2026-05-01T10:25:08.843Z</time></trkpt><trkpt lat="40.89468375208655" lon="8.690094899846507"><ele>45.0</ele><time>2026-05-01T10:25:10.843Z</time></trkpt><trkpt lat="40.89464382922646" lon="8.689959692955469"><ele>46.833333333333336</ele><time>2026-05-01T10:25:12.843Z</time></trkpt><trkpt lat="40.894622809089796" lon="8.68986379240624"><ele>48.66666666666667</ele><time>2026-05-01T10:25:13.843Z</time></trkpt><trkpt lat="40.894610110867035" lon="8.689770278759742"><ele>50.5</ele><time>2026-05-01T10:25:14.843Z</time></trkpt><trkpt lat="40.89460832693193" lon="8.68968465983873"><ele>52.333333333333336</ele><time>2026-05-01T10:25:15.843Z</time></trkpt><trkpt lat="40.89458690704037" lon="8.689602498590425"><ele>54.16666666666667</ele><time>2026-05-01T10:25:16.843Z</time></trkpt><trkpt lat="40.89458685646786" lon="8.689448764832003"><ele>56.0</ele><time>2026-05-01T10:25:18.843Z</time></trkpt><trkpt lat="40.89459855942108" lon="8.689359702038205"><ele>57.00000000000001</ele><time>2026-05-01T10:25:19.843Z</time></trkpt><trkpt lat="40.89460656292118" lon="8.689252624124363"><ele>58.0</ele><time>2026-05-01T10:25:20.843Z</time></trkpt><trkpt lat="40.894609148428735" lon="8.689146585320648"><ele>59.0</ele><time>2026-05-01T10:25:21.843Z</time></trkpt><trkpt lat="40.89461918685906" lon="8.689047193334432"><ele>60.0</ele><time>2026-05-01T10:25:22.843Z</time></trkpt><trkpt lat="40.89463886217271" lon="8.688939347984485"><ele>61.00000000000001</ele><time>2026-05-01T10:25:23.843Z</time></trkpt><trkpt lat="40.89466453963306" lon="8.68883613659104"><ele>62.0</ele><time>2026-05-01T10:25:24.843Z</time></trkpt><trkpt lat="40.894689603557374" lon="8.688700692345503"><ele>61.8</ele><time>2026-05-01T10:25:25.843Z</time></trkpt><trkpt lat="40.89471602291397" lon="8.688582705461746"><ele>61.6</ele><time>2026-05-01T10:25:26.843Z</time></trkpt><trkpt lat="40.89474058114907" lon="8.68846999684608"><ele>61.39999999999999</ele><time>2026-05-01T10:25:27.843Z</time></trkpt><trkpt lat="40.894774122133846" lon="8.68835761655141"><ele>61.199999999999996</ele><time>2026-05-01T10:25:28.843Z</time></trkpt><trkpt lat="40.89480302197208" lon="8.688256243690134"><ele>61.0</ele><time>2026-05-01T10:25:29.843Z</time></trkpt><trkpt lat="40.894861510846866" lon="8.688133998292079"><ele>61.0</ele><time>2026-05-01T10:25:31.843Z</time></trkpt><trkpt lat="40.89480419713769" lon="8.688046406658543"><ele>60.99999999999999</ele><time>2026-05-01T10:25:42.843Z</time></trkpt><trkpt lat="40.894675873500105" lon="8.688010810185885"><ele>60.99999999999999</ele><time>2026-05-01T10:25:44.843Z</time></trkpt><trkpt lat="40.89459894382418" lon="8.688000944997647"><ele>61.0</ele><time>2026-05-01T10:25:45.843Z</time></trkpt><trkpt lat="40.89451050894875" lon="8.68800786655023"><ele>61.0</ele><time>2026-05-01T10:25:46.843Z</time></trkpt><trkpt lat="40.89441541598795" lon="8.688018802934938"><ele>61.0</ele><time>2026-05-01T10:25:47.843Z</time></trkpt><trkpt lat="40.89432154261878" lon="8.688040703197045"><ele>60.99999999999999</ele><time>2026-05-01T10:25:48.843Z</time></trkpt><trkpt lat="40.89422275563374" lon="8.688080005872939"><ele>60.99999999999999</ele><time>2026-05-01T10:25:49.843Z</time></trkpt><trkpt lat="40.89412984121409" lon="8.688141376311984"><ele>61.0</ele><time>2026-05-01T10:25:50.843Z</time></trkpt><trkpt lat="40.894033808139916" lon="8.68821098937892"><ele>61.0</ele><time>2026-05-01T10:25:51.843Z</time></trkpt><trkpt lat="40.89393837812785" lon="8.688288618016347"><ele>59.75</ele><time>2026-05-01T10:25:52.843Z</time></trkpt><trkpt lat="40.89384270308008" lon="8.68836123224939"><ele>58.5</ele><time>2026-05-01T10:25:53.843Z</time></trkpt><trkpt lat="40.89374003081254" lon="8.688439045327648"><ele>57.25</ele><time>2026-05-01T10:25:54.843Z</time></trkpt><trkpt lat="40.893631129902076" lon="8.688496630152171"><ele>56.0</ele><time>2026-05-01T10:25:55.843Z</time></trkpt><trkpt lat="40.89352561625111" lon="8.688549946754607"><ele>56.25</ele><time>2026-05-01T10:25:56.843Z</time></trkpt><trkpt lat="40.8934183770977" lon="8.688570021096158"><ele>56.5</ele><time>2026-05-01T10:25:57.843Z</time></trkpt><trkpt lat="40.89329531721478" lon="8.688552211935312"><ele>56.75</ele><time>2026-05-01T10:25:58.843Z</time></trkpt><trkpt lat="40.89317443462119" lon="8.68853508050848"><ele>57.0</ele><time>2026-05-01T10:25:59.843Z</time></trkpt><trkpt lat="40.89305427782084" lon="8.688519545032205"><ele>57.0</ele><time>2026-05-01T10:26:00.843Z</time></trkpt><trkpt lat="40.892935990978984" lon="8.688478759572444"><ele>57.0</ele><time>2026-05-01T10:26:01.843Z</time></trkpt><trkpt lat="40.89280644969192" lon="8.688458630312985"><ele>57.0</ele><time>2026-05-01T10:26:02.843Z</time></trkpt><trkpt lat="40.89267094630613" lon="8.68843493140203"><ele>57.0</ele><time>2026-05-01T10:26:03.843Z</time></trkpt><trkpt lat="40.892532745137736" lon="8.688411929548863"><ele>57.0</ele><time>2026-05-01T10:26:04.843Z</time></trkpt><trkpt lat="40.892391680210345" lon="8.688387614791072"><ele>57.0</ele><time>2026-05-01T10:26:05.843Z</time></trkpt><trkpt lat="40.892251296712196" lon="8.688363999433925"><ele>57.0</ele><time>2026-05-01T10:26:06.843Z</time></trkpt><trkpt lat="40.89210994686645" lon="8.688341065378866"><ele>57.0</ele><time>2026-05-01T10:26:07.843Z</time></trkpt><trkpt lat="40.89196849134085" lon="8.688323671621257"><ele>57.0</ele><time>2026-05-01T10:26:08.843Z</time></trkpt><trkpt lat="40.89182627212033" lon="8.688304305582681"><ele>57.0</ele><time>2026-05-01T10:26:09.843Z</time></trkpt><trkpt lat="40.891681748164764" lon="8.688285046397766"><ele>57.0</ele><time>2026-05-01T10:26:10.843Z</time></trkpt><trkpt lat="40.891539122474924" lon="8.688264623521778"><ele>57.0</ele><time>2026-05-01T10:26:11.843Z</time></trkpt><trkpt lat="40.89139954268903" lon="8.688247618546065"><ele>58.75</ele><time>2026-05-01T10:26:12.843Z</time></trkpt><trkpt lat="40.89126692709971" lon="8.688251990108089"><ele>60.5</ele><time>2026-05-01T10:26:13.843Z</time></trkpt><trkpt lat="40.8911403613655" lon="8.688276672046594"><ele>62.25</ele><time>2026-05-01T10:26:14.843Z</time></trkpt><trkpt lat="40.89101112625727" lon="8.688322736769143"><ele>64.0</ele><time>2026-05-01T10:26:15.843Z</time></trkpt><trkpt lat="40.89088125972755" lon="8.688381414313483"><ele>63.25</ele><time>2026-05-01T10:26:16.843Z</time></trkpt><trkpt lat="40.890752016351875" lon="8.688453300562715"><ele>62.5</ele><time>2026-05-01T10:26:17.843Z</time></trkpt><trkpt lat="40.89062342035094" lon="8.68854223494706"><ele>61.75</ele><time>2026-05-01T10:26:18.843Z</time></trkpt><trkpt lat="40.890491605244854" lon="8.688637336072965"><ele>61.0</ele><time>2026-05-01T10:26:19.843Z</time></trkpt><trkpt lat="40.89035027627327" lon="8.688734519324397"><ele>61.0</ele><time>2026-05-01T10:26:20.843Z</time></trkpt><trkpt lat="40.89020458712086" lon="8.688841370839702"><ele>61.0</ele><time>2026-05-01T10:26:21.843Z</time></trkpt><trkpt lat="40.8900523179548" lon="8.688920390031141"><ele>61.0</ele><time>2026-05-01T10:26:22.843Z</time></trkpt><trkpt lat="40.88990840947694" lon="8.68901478308378"><ele>64.0</ele><time>2026-05-01T10:26:23.843Z</time></trkpt><trkpt lat="40.8897738312946" lon="8.689124514416774"><ele>67.0</ele><time>2026-05-01T10:26:24.843Z</time></trkpt><trkpt lat="40.88964257889452" lon="8.689190118538724"><ele>70.0</ele><time>2026-05-01T10:26:25.843Z</time></trkpt><trkpt lat="40.889490428470715" lon="8.689248827946583"><ele>70.0</ele><time>2026-05-01T10:26:26.843Z</time></trkpt><trkpt lat="40.88934319313616" lon="8.689300356995314"><ele>70.0</ele><time>2026-05-01T10:26:27.843Z</time></trkpt><trkpt lat="40.88918637910784" lon="8.689344253563824"><ele>70.0</ele><time>2026-05-01T10:26:28.843Z</time></trkpt><trkpt lat="40.88903038207316" lon="8.689396474550891"><ele>66.33333333333333</ele><time>2026-05-01T10:26:29.843Z</time></trkpt><trkpt lat="40.888873198839285" lon="8.689442535762902"><ele>62.66666666666667</ele><time>2026-05-01T10:26:30.843Z</time></trkpt><trkpt lat="40.888718198311416" lon="8.689475093972623"><ele>59.0</ele><time>2026-05-01T10:26:31.843Z</time></trkpt><trkpt lat="40.888556506439095" lon="8.689520702190196"><ele>60.333333333333336</ele><time>2026-05-01T10:26:32.843Z</time></trkpt><trkpt lat="40.88839710586398" lon="8.689562795057702"><ele>61.66666666666667</ele><time>2026-05-01T10:26:33.843Z</time></trkpt><trkpt lat="40.888241780803305" lon="8.689601472386114"><ele>63.0</ele><time>2026-05-01T10:26:34.841Z</time></trkpt><trkpt lat="40.888091896029074" lon="8.689639704530562"><ele>63.0</ele><time>2026-05-01T10:26:35.84Z</time></trkpt><trkpt lat="40.88795246959746" lon="8.68966599092206"><ele>63.0</ele><time>2026-05-01T10:26:36.84Z</time></trkpt><trkpt lat="40.88781616746908" lon="8.689676762421861"><ele>63.0</ele><time>2026-05-01T10:26:37.84Z</time></trkpt><trkpt lat="40.88768547463076" lon="8.689667491879778"><ele>63.0</ele><time>2026-05-01T10:26:38.84Z</time></trkpt><trkpt lat="40.887562781620964" lon="8.689628492623756"><ele>63.5</ele><time>2026-05-01T10:26:39.84Z</time></trkpt><trkpt lat="40.887446966659596" lon="8.689556461878627"><ele>64.0</ele><time>2026-05-01T10:26:40.84Z</time></trkpt><trkpt lat="40.887323453949136" lon="8.689477811183101"><ele>64.5</ele><time>2026-05-01T10:26:41.84Z</time></trkpt><trkpt lat="40.887219127321856" lon="8.68936882305709"><ele>65.0</ele><time>2026-05-01T10:26:42.84Z</time></trkpt><trkpt lat="40.88708912882289" lon="8.689298965290659"><ele>69.66666666666667</ele><time>2026-05-01T10:26:43.84Z</time></trkpt><trkpt lat="40.88695049442925" lon="8.689246202127784"><ele>74.33333333333333</ele><time>2026-05-01T10:26:44.84Z</time></trkpt><trkpt lat="40.88679688941328" lon="8.68921374108582"><ele>79.0</ele><time>2026-05-01T10:26:45.84Z</time></trkpt><trkpt lat="40.88663837563979" lon="8.689190001815087"><ele>79.0</ele><time>2026-05-01T10:26:46.84Z</time></trkpt><trkpt lat="40.88648117243479" lon="8.689165890083183"><ele>79.0</ele><time>2026-05-01T10:26:47.839Z</time></trkpt><trkpt lat="40.886315920261204" lon="8.689140258092321"><ele>79.0</ele><time>2026-05-01T10:26:48.839Z</time></trkpt><trkpt lat="40.88615812342234" lon="8.689117996312643"><ele>79.0</ele><time>2026-05-01T10:26:49.839Z</time></trkpt><trkpt lat="40.88600125359727" lon="8.689097761930661"><ele>79.0</ele><time>2026-05-01T10:26:50.839Z</time></trkpt><trkpt lat="40.88585754956292" lon="8.689086164872721"><ele>79.0</ele><time>2026-05-01T10:26:51.839Z</time></trkpt><trkpt lat="40.885725315424644" lon="8.689090654314567"><ele>79.0</ele><time>2026-05-01T10:26:52.839Z</time></trkpt><trkpt lat="40.88560221995018" lon="8.689118792476469"><ele>77.75</ele><time>2026-05-01T10:26:53.839Z</time></trkpt><trkpt lat="40.88548107208595" lon="8.689149230637517"><ele>76.5</ele><time>2026-05-01T10:26:54.839Z</time></trkpt><trkpt lat="40.88536451708238" lon="8.689225614306148"><ele>75.25</ele><time>2026-05-01T10:26:55.839Z</time></trkpt><trkpt lat="40.88525765121579" lon="8.689346835396767"><ele>74.0</ele><time>2026-05-01T10:26:56.839Z</time></trkpt><trkpt lat="40.885141375809035" lon="8.689459872318297"><ele>73.75</ele><time>2026-05-01T10:26:57.839Z</time></trkpt><trkpt lat="40.88502996703823" lon="8.689570996543074"><ele>73.5</ele><time>2026-05-01T10:26:58.839Z</time></trkpt><trkpt lat="40.88492203105387" lon="8.689666187796924"><ele>73.25</ele><time>2026-05-01T10:26:59.839Z</time></trkpt><trkpt lat="40.88481328848807" lon="8.68973275321728"><ele>73.0</ele><time>2026-05-01T10:27:00.839Z</time></trkpt><trkpt lat="40.884697083233846" lon="8.689775067671016"><ele>73.0</ele><time>2026-05-01T10:27:01.839Z</time></trkpt><trkpt lat="40.88456302009865" lon="8.689789117791005"><ele>73.0</ele><time>2026-05-01T10:27:02.839Z</time></trkpt><trkpt lat="40.884429805355886" lon="8.689780433586305"><ele>73.0</ele><time>2026-05-01T10:27:03.839Z</time></trkpt><trkpt lat="40.884291259584984" lon="8.68975762842873"><ele>73.0</ele><time>2026-05-01T10:27:04.839Z</time></trkpt><trkpt lat="40.88415095083012" lon="8.68972901921189"><ele>73.33333333333333</ele><time>2026-05-01T10:27:05.839Z</time></trkpt><trkpt lat="40.884003956746746" lon="8.689700230277234"><ele>73.66666666666667</ele><time>2026-05-01T10:27:06.839Z</time></trkpt><trkpt lat="40.88384579674174" lon="8.689672014547329"><ele>74.0</ele><time>2026-05-01T10:27:07.839Z</time></trkpt><trkpt lat="40.88368174981219" lon="8.689647992459767"><ele>74.0</ele><time>2026-05-01T10:27:08.839Z</time></trkpt><trkpt lat="40.883513215553805" lon="8.6896223726709"><ele>74.0</ele><time>2026-05-01T10:27:09.839Z</time></trkpt><trkpt lat="40.88334079307364" lon="8.689592627747357"><ele>74.0</ele><time>2026-05-01T10:27:10.839Z</time></trkpt><trkpt lat="40.88316296643468" lon="8.68956558758055"><ele>75.33333333333334</ele><time>2026-05-01T10:27:11.839Z</time></trkpt><trkpt lat="40.88297735670685" lon="8.68953875056758"><ele>76.66666666666667</ele><time>2026-05-01T10:27:12.839Z</time></trkpt><trkpt lat="40.88279926621685" lon="8.689488889847896"><ele>78.0</ele><time>2026-05-01T10:27:13.839Z</time></trkpt><trkpt lat="40.882620114684386" lon="8.689457647261243"><ele>78.66666666666667</ele><time>2026-05-01T10:27:14.839Z</time></trkpt><trkpt lat="40.88244126056511" lon="8.689428111909265"><ele>79.33333333333334</ele><time>2026-05-01T10:27:15.839Z</time></trkpt><trkpt lat="40.88226779762116" lon="8.689402722080422"><ele>80.0</ele><time>2026-05-01T10:27:16.839Z</time></trkpt><trkpt lat="40.88210608870482" lon="8.689386217259012"><ele>81.66666666666667</ele><time>2026-05-01T10:27:17.839Z</time></trkpt><trkpt lat="40.881942222471004" lon="8.689389371001266"><ele>83.33333333333333</ele><time>2026-05-01T10:27:18.839Z</time></trkpt><trkpt lat="40.88178443749062" lon="8.68941336165508"><ele>85.0</ele><time>2026-05-01T10:27:19.839Z</time></trkpt><trkpt lat="40.88162557316195" lon="8.689456498020938"><ele>85.0</ele><time>2026-05-01T10:27:20.839Z</time></trkpt><trkpt lat="40.88146613345923" lon="8.689505059233676"><ele>85.0</ele><time>2026-05-01T10:27:21.839Z</time></trkpt><trkpt lat="40.88130745368619" lon="8.689556470781184"><ele>85.0</ele><time>2026-05-01T10:27:22.839Z</time></trkpt><trkpt lat="40.88116386401337" lon="8.689608215439685"><ele>85.0</ele><time>2026-05-01T10:27:23.839Z</time></trkpt><trkpt lat="40.881036995467305" lon="8.689673943159724"><ele>85.0</ele><time>2026-05-01T10:27:24.839Z</time></trkpt><trkpt lat="40.880918598141065" lon="8.689764209759161"><ele>85.0</ele><time>2026-05-01T10:27:25.839Z</time></trkpt><trkpt lat="40.88080871781724" lon="8.689876635173055"><ele>85.0</ele><time>2026-05-01T10:27:26.839Z</time></trkpt><trkpt lat="40.88069590609903" lon="8.689998817707602"><ele>85.75</ele><time>2026-05-01T10:27:27.839Z</time></trkpt><trkpt lat="40.880585760256395" lon="8.690121785365235"><ele>86.5</ele><time>2026-05-01T10:27:28.839Z</time></trkpt><trkpt lat="40.88048287092912" lon="8.690263633755535"><ele>87.25</ele><time>2026-05-01T10:27:29.839Z</time></trkpt><trkpt lat="40.88037425201225" lon="8.690385671370388"><ele>88.0</ele><time>2026-05-01T10:27:30.839Z</time></trkpt><trkpt lat="40.88027726316331" lon="8.690508272836185"><ele>88.0</ele><time>2026-05-01T10:27:31.839Z</time></trkpt><trkpt lat="40.88019449236331" lon="8.690639227390832"><ele>88.0</ele><time>2026-05-01T10:27:32.839Z</time></trkpt><trkpt lat="40.88012220390211" lon="8.690786139757762"><ele>88.0</ele><time>2026-05-01T10:27:33.839Z</time></trkpt><trkpt lat="40.88005181722425" lon="8.690942783987712"><ele>88.0</ele><time>2026-05-01T10:27:34.839Z</time></trkpt><trkpt lat="40.879974489349095" lon="8.691088837758961"><ele>89.60000000000001</ele><time>2026-05-01T10:27:35.839Z</time></trkpt><trkpt lat="40.879885777230264" lon="8.691214063310065"><ele>91.2</ele><time>2026-05-01T10:27:36.839Z</time></trkpt><trkpt lat="40.879790209992" lon="8.6913106291644"><ele>92.8</ele><time>2026-05-01T10:27:37.839Z</time></trkpt><trkpt lat="40.87970004536523" lon="8.69138891724404"><ele>94.4</ele><time>2026-05-01T10:27:38.839Z</time></trkpt><trkpt lat="40.87963820286369" lon="8.69143721866347"><ele>96.0</ele><time>2026-05-01T10:27:39.839Z</time></trkpt><trkpt lat="40.87956751422486" lon="8.691448754393907"><ele>95.99999999999999</ele><time>2026-05-01T10:27:42.839Z</time></trkpt><trkpt lat="40.87950367186577" lon="8.69148155359354"><ele>96.0</ele><time>2026-05-01T10:27:56.855Z</time></trkpt><trkpt lat="40.879414277705294" lon="8.691451601781866"><ele>96.0</ele><time>2026-05-01T10:27:57.856Z</time></trkpt><trkpt lat="40.87934661828318" lon="8.691455398150797"><ele>96.0</ele><time>2026-05-01T10:27:58.858Z</time></trkpt><trkpt lat="40.87927502872683" lon="8.691457922146837"><ele>96.0</ele><time>2026-05-01T10:27:59.859Z</time></trkpt><trkpt lat="40.879199464519175" lon="8.691452743480598"><ele>95.99999999999999</ele><time>2026-05-01T10:28:00.861Z</time></trkpt><trkpt lat="40.87912965500952" lon="8.691426999875302"><ele>96.0</ele><time>2026-05-01T10:28:01.862Z</time></trkpt><trkpt lat="40.879038226407765" lon="8.691403000322898"><ele>97.33333333333333</ele><time>2026-05-01T10:28:02.863Z</time></trkpt><trkpt lat="40.87896032013801" lon="8.691385322279228"><ele>98.66666666666666</ele><time>2026-05-01T10:28:03.864Z</time></trkpt><trkpt lat="40.87887735913004" lon="8.691376360254333"><ele>100.0</ele><time>2026-05-01T10:28:04.865Z</time></trkpt><trkpt lat="40.878785379764686" lon="8.69135052062901"><ele>101.33333333333333</ele><time>2026-05-01T10:28:05.866Z</time></trkpt><trkpt lat="40.878702464274916" lon="8.69131936717401"><ele>102.66666666666666</ele><time>2026-05-01T10:28:06.867Z</time></trkpt><trkpt lat="40.87862227561198" lon="8.691283275038405"><ele>104.0</ele><time>2026-05-01T10:28:07.868Z</time></trkpt><trkpt lat="40.87855250692847" lon="8.691263153175779"><ele>103.99999999999999</ele><time>2026-05-01T10:28:08.869Z</time></trkpt><trkpt lat="40.878486798749094" lon="8.691256201666292"><ele>104.0</ele><time>2026-05-01T10:28:09.869Z</time></trkpt><trkpt lat="40.878379387856015" lon="8.69127613580746"><ele>104.0</ele><time>2026-05-01T10:28:11.871Z</time></trkpt><trkpt lat="40.87832088347458" lon="8.691334465053938"><ele>104.0</ele><time>2026-05-01T10:28:13.872Z</time></trkpt><trkpt lat="40.87827557391342" lon="8.691498745447738"><ele>103.99999999999999</ele><time>2026-05-01T10:28:15.873Z</time></trkpt><trkpt lat="40.878247639210876" lon="8.691575005901205"><ele>104.0</ele><time>2026-05-01T10:28:16.874Z</time></trkpt><trkpt lat="40.87817979309304" lon="8.691682560147255"><ele>104.6</ele><time>2026-05-01T10:28:18.875Z</time></trkpt><trkpt lat="40.878086910794806" lon="8.691779458774784"><ele>105.2</ele><time>2026-05-01T10:28:20.875Z</time></trkpt><trkpt lat="40.878013238834775" lon="8.691797903397068"><ele>105.79999999999998</ele><time>2026-05-01T10:28:21.876Z</time></trkpt><trkpt lat="40.87792763451659" lon="8.69178277859121"><ele>106.39999999999999</ele><time>2026-05-01T10:28:22.876Z</time></trkpt><trkpt lat="40.87784009385294" lon="8.69180630550657"><ele>107.0</ele><time>2026-05-01T10:28:23.876Z</time></trkpt><trkpt lat="40.87775422534301" lon="8.691782572567137"><ele>107.0</ele><time>2026-05-01T10:28:24.877Z</time></trkpt><trkpt lat="40.87766592002553" lon="8.69178071584112"><ele>106.99999999999999</ele><time>2026-05-01T10:28:25.877Z</time></trkpt><trkpt lat="40.877562882863714" lon="8.691782316578054"><ele>106.99999999999999</ele><time>2026-05-01T10:28:26.877Z</time></trkpt><trkpt lat="40.87743937786578" lon="8.691795903027499"><ele>107.0</ele><time>2026-05-01T10:28:27.877Z</time></trkpt><trkpt lat="40.87730954860401" lon="8.691784020400483"><ele>107.0</ele><time>2026-05-01T10:28:28.878Z</time></trkpt><trkpt lat="40.877187972614124" lon="8.691792611780105"><ele>109.8</ele><time>2026-05-01T10:28:29.878Z</time></trkpt><trkpt lat="40.877085738691484" lon="8.691808461282099"><ele>112.6</ele><time>2026-05-01T10:28:30.878Z</time></trkpt><trkpt lat="40.876999216153344" lon="8.691823025174745"><ele>115.39999999999999</ele><time>2026-05-01T10:28:31.878Z</time></trkpt><trkpt lat="40.876933800215255" lon="8.691831432596762"><ele>118.19999999999999</ele><time>2026-05-01T10:28:32.878Z</time></trkpt><trkpt lat="40.87683724216673" lon="8.691840760374147"><ele>121.0</ele><time>2026-05-01T10:28:33.879Z</time></trkpt><trkpt lat="40.876701153384985" lon="8.691841204415756"><ele>125.4</ele><time>2026-05-01T10:28:35.879Z</time></trkpt><trkpt lat="40.87662004981778" lon="8.691831986184942"><ele>129.8</ele><time>2026-05-01T10:28:36.879Z</time></trkpt><trkpt lat="40.87653476412447" lon="8.69182221534335"><ele>134.20000000000002</ele><time>2026-05-01T10:28:37.879Z</time></trkpt><trkpt lat="40.87641151405925" lon="8.691806095791703"><ele>138.6</ele><time>2026-05-01T10:28:39.879Z</time></trkpt><trkpt lat="40.87633138797331" lon="8.691791306502177"><ele>143.0</ele><time>2026-05-01T10:28:40.878Z</time></trkpt><trkpt lat="40.876250781270834" lon="8.691770993889618"><ele>143.0</ele><time>2026-05-01T10:28:41.877Z</time></trkpt><trkpt lat="40.87617436851474" lon="8.691735926774825"><ele>143.0</ele><time>2026-05-01T10:28:42.877Z</time></trkpt><trkpt lat="40.87609286795287" lon="8.691694402238236"><ele>143.0</ele><time>2026-05-01T10:28:43.878Z</time></trkpt><trkpt lat="40.87601133970922" lon="8.691652863634419"><ele>143.0</ele><time>2026-05-01T10:28:44.878Z</time></trkpt><trkpt lat="40.875929954575604" lon="8.691609784878285"><ele>143.0</ele><time>2026-05-01T10:28:45.878Z</time></trkpt><trkpt lat="40.87583969572058" lon="8.691576165987122"><ele>143.0</ele><time>2026-05-01T10:28:46.878Z</time></trkpt><trkpt lat="40.87577776482782" lon="8.691502449243934"><ele>148.2</ele><time>2026-05-01T10:28:47.878Z</time></trkpt><trkpt lat="40.87571495022979" lon="8.691431257207423"><ele>153.4</ele><time>2026-05-01T10:28:48.879Z</time></trkpt><trkpt lat="40.87565666468873" lon="8.69137090525145"><ele>158.6</ele><time>2026-05-01T10:28:49.878Z</time></trkpt><trkpt lat="40.87556015485971" lon="8.69132415275582"><ele>163.79999999999998</ele><time>2026-05-01T10:28:51.878Z</time></trkpt><trkpt lat="40.87548251111555" lon="8.691278423633033"><ele>169.0</ele><time>2026-05-01T10:28:53.879Z</time></trkpt><trkpt lat="40.87534774470042" lon="8.691303706361232"><ele>169.0</ele><time>2026-05-01T10:28:55.879Z</time></trkpt><trkpt lat="40.87522443572491" lon="8.691347991891067"><ele>169.0</ele><time>2026-05-01T10:28:56.879Z</time></trkpt><trkpt lat="40.87508613097976" lon="8.691411993584557"><ele>169.0</ele><time>2026-05-01T10:28:57.879Z</time></trkpt><trkpt lat="40.87498480814079" lon="8.691447298018709"><ele>169.0</ele><time>2026-05-01T10:28:58.879Z</time></trkpt><trkpt lat="40.8748946997002" lon="8.691495373448909"><ele>171.79999999999998</ele><time>2026-05-01T10:28:59.879Z</time></trkpt><trkpt lat="40.87480403499344" lon="8.691552095037549"><ele>174.6</ele><time>2026-05-01T10:29:00.879Z</time></trkpt><trkpt lat="40.87472117019287" lon="8.691617811403663"><ele>177.4</ele><time>2026-05-01T10:29:01.879Z</time></trkpt><trkpt lat="40.8746434401814" lon="8.691689132816412"><ele>180.2</ele><time>2026-05-01T10:29:02.879Z</time></trkpt><trkpt lat="40.874568032744754" lon="8.691770217785391"><ele>183.0</ele><time>2026-05-01T10:29:03.879Z</time></trkpt><trkpt lat="40.87449422804474" lon="8.6918601228423"><ele>184.60000000000002</ele><time>2026-05-01T10:29:04.879Z</time></trkpt><trkpt lat="40.87443159121641" lon="8.69196217696238"><ele>186.20000000000002</ele><time>2026-05-01T10:29:05.879Z</time></trkpt><trkpt lat="40.87437299412753" lon="8.692064022820244"><ele>187.8</ele><time>2026-05-01T10:29:06.879Z</time></trkpt><trkpt lat="40.87431422263612" lon="8.69216382579669"><ele>189.4</ele><time>2026-05-01T10:29:07.879Z</time></trkpt><trkpt lat="40.87424475907253" lon="8.692247464841884"><ele>191.0</ele><time>2026-05-01T10:29:08.879Z</time></trkpt><trkpt lat="40.87418342325932" lon="8.692331534712336"><ele>192.33333333333331</ele><time>2026-05-01T10:29:09.879Z</time></trkpt><trkpt lat="40.87412208412143" lon="8.692412114907707"><ele>193.66666666666666</ele><time>2026-05-01T10:29:10.879Z</time></trkpt><trkpt lat="40.874063830053046" lon="8.692481631790606"><ele>195.0</ele><time>2026-05-01T10:29:11.879Z</time></trkpt><trkpt lat="40.874001921460085" lon="8.692537189523858"><ele>196.33333333333331</ele><time>2026-05-01T10:29:12.879Z</time></trkpt><trkpt lat="40.873924722547" lon="8.69260010803832"><ele>197.66666666666666</ele><time>2026-05-01T10:29:13.879Z</time></trkpt><trkpt lat="40.87383637523441" lon="8.692676817492714"><ele>199.0</ele><time>2026-05-01T10:29:14.879Z</time></trkpt><trkpt lat="40.873748808827784" lon="8.69274879250655"><ele>200.33333333333331</ele><time>2026-05-01T10:29:15.88Z</time></trkpt><trkpt lat="40.87366320267253" lon="8.69281738534926"><ele>201.66666666666666</ele><time>2026-05-01T10:29:16.88Z</time></trkpt><trkpt lat="40.873592165986075" lon="8.692882899330023"><ele>203.0</ele><time>2026-05-01T10:29:17.88Z</time></trkpt><trkpt lat="40.873514982125315" lon="8.692946376826375"><ele>204.33333333333331</ele><time>2026-05-01T10:29:18.88Z</time></trkpt><trkpt lat="40.873441502590545" lon="8.69300535453006"><ele>205.66666666666666</ele><time>2026-05-01T10:29:19.88Z</time></trkpt><trkpt lat="40.873370541935515" lon="8.693058442759222"><ele>207.0</ele><time>2026-05-01T10:29:20.88Z</time></trkpt><trkpt lat="40.873292389390635" lon="8.693093909492356"><ele>207.0</ele><time>2026-05-01T10:29:21.88Z</time></trkpt><trkpt lat="40.873209286254685" lon="8.693124790978311"><ele>207.0</ele><time>2026-05-01T10:29:22.88Z</time></trkpt><trkpt lat="40.87310686325148" lon="8.693165885050679"><ele>207.0</ele><time>2026-05-01T10:29:23.88Z</time></trkpt><trkpt lat="40.87300865600467" lon="8.693221174947912"><ele>207.0</ele><time>2026-05-01T10:29:24.88Z</time></trkpt><trkpt lat="40.872922575933174" lon="8.693264579907828"><ele>207.0</ele><time>2026-05-01T10:29:25.88Z</time></trkpt><trkpt lat="40.87284802498353" lon="8.69330868796584"><ele>207.0</ele><time>2026-05-01T10:29:26.88Z</time></trkpt><trkpt lat="40.8727488289663" lon="8.693332601925977"><ele>207.0</ele><time>2026-05-01T10:29:27.88Z</time></trkpt><trkpt lat="40.872654450979645" lon="8.693342629293692"><ele>207.0</ele><time>2026-05-01T10:29:28.88Z</time></trkpt><trkpt lat="40.87254716923807" lon="8.693340489503164"><ele>207.0</ele><time>2026-05-01T10:29:29.88Z</time></trkpt><trkpt lat="40.87244607419103" lon="8.693334943486853"><ele>207.0</ele><time>2026-05-01T10:29:30.88Z</time></trkpt><trkpt lat="40.872341426154414" lon="8.693338408822912"><ele>205.2</ele><time>2026-05-01T10:29:31.88Z</time></trkpt><trkpt lat="40.8722355317543" lon="8.693362086523479"><ele>203.39999999999998</ele><time>2026-05-01T10:29:32.88Z</time></trkpt><trkpt lat="40.8721470268398" lon="8.693387664201886"><ele>201.60000000000002</ele><time>2026-05-01T10:29:33.88Z</time></trkpt><trkpt lat="40.87205990680808" lon="8.693392016317944"><ele>199.8</ele><time>2026-05-01T10:29:34.88Z</time></trkpt><trkpt lat="40.871973029278735" lon="8.693382028340086"><ele>198.0</ele><time>2026-05-01T10:29:35.88Z</time></trkpt><trkpt lat="40.87188548632843" lon="8.69336057685361"><ele>198.0</ele><time>2026-05-01T10:29:36.88Z</time></trkpt><trkpt lat="40.8717973206774" lon="8.693313200442443"><ele>198.0</ele><time>2026-05-01T10:29:37.88Z</time></trkpt><trkpt lat="40.87171207853334" lon="8.69326401275242"><ele>198.0</ele><time>2026-05-01T10:29:38.88Z</time></trkpt><trkpt lat="40.87163329779782" lon="8.693204841487649"><ele>198.0</ele><time>2026-05-01T10:29:39.88Z</time></trkpt><trkpt lat="40.87155085939037" lon="8.693163619584436"><ele>198.0</ele><time>2026-05-01T10:29:40.88Z</time></trkpt><trkpt lat="40.87147670947343" lon="8.693128062056676"><ele>198.0</ele><time>2026-05-01T10:29:41.88Z</time></trkpt><trkpt lat="40.871413759837914" lon="8.693096700364526"><ele>197.83333333333334</ele><time>2026-05-01T10:29:42.88Z</time></trkpt><trkpt lat="40.871348436358055" lon="8.693025666281475"><ele>197.66666666666669</ele><time>2026-05-01T10:29:44.88Z</time></trkpt><trkpt lat="40.87134790414505" lon="8.692935578599654"><ele>197.5</ele><time>2026-05-01T10:29:46.88Z</time></trkpt><trkpt lat="40.87143144891951" lon="8.692898758522562"><ele>197.33333333333334</ele><time>2026-05-01T10:29:48.88Z</time></trkpt><trkpt lat="40.871495320051835" lon="8.692855336598921"><ele>197.16666666666669</ele><time>2026-05-01T10:29:49.88Z</time></trkpt><trkpt lat="40.871574992957896" lon="8.692806174943872"><ele>197.0</ele><time>2026-05-01T10:29:50.88Z</time></trkpt><trkpt lat="40.87167072944939" lon="8.6927716202767"><ele>193.5</ele><time>2026-05-01T10:29:51.88Z</time></trkpt><trkpt lat="40.871777236360074" lon="8.692754672400907"><ele>190.0</ele><time>2026-05-01T10:29:52.88Z</time></trkpt><trkpt lat="40.87189005945671" lon="8.692734983135972"><ele>186.5</ele><time>2026-05-01T10:29:53.88Z</time></trkpt><trkpt lat="40.871997050501584" lon="8.692688102093904"><ele>183.0</ele><time>2026-05-01T10:29:54.88Z</time></trkpt><trkpt lat="40.8720869409704" lon="8.692589339124849"><ele>183.0</ele><time>2026-05-01T10:29:55.88Z</time></trkpt><trkpt lat="40.872180817348244" lon="8.69250486505147"><ele>183.0</ele><time>2026-05-01T10:29:56.88Z</time></trkpt><trkpt lat="40.87226411474003" lon="8.692406412794293"><ele>183.0</ele><time>2026-05-01T10:29:57.88Z</time></trkpt><trkpt lat="40.87234188770468" lon="8.69229685641498"><ele>183.0</ele><time>2026-05-01T10:29:58.88Z</time></trkpt><trkpt lat="40.87241274680562" lon="8.692174428677795"><ele>183.0</ele><time>2026-05-01T10:29:59.88Z</time></trkpt><trkpt lat="40.87247302073018" lon="8.692047109306682"><ele>183.0</ele><time>2026-05-01T10:30:00.88Z</time></trkpt><trkpt lat="40.8725284678341" lon="8.6919094978359"><ele>183.0</ele><time>2026-05-01T10:30:01.88Z</time></trkpt><trkpt lat="40.87258685555621" lon="8.691779826463364"><ele>183.0</ele><time>2026-05-01T10:30:02.88Z</time></trkpt><trkpt lat="40.87263746116397" lon="8.691640555885304"><ele>180.5</ele><time>2026-05-01T10:30:03.88Z</time></trkpt><trkpt lat="40.87268914224025" lon="8.691507625812626"><ele>178.0</ele><time>2026-05-01T10:30:04.88Z</time></trkpt><trkpt lat="40.87273885066604" lon="8.69137279407557"><ele>175.5</ele><time>2026-05-01T10:30:05.88Z</time></trkpt><trkpt lat="40.87279207604692" lon="8.691236423174486"><ele>173.0</ele><time>2026-05-01T10:30:06.88Z</time></trkpt><trkpt lat="40.87284525457898" lon="8.691102311066317"><ele>176.2</ele><time>2026-05-01T10:30:07.88Z</time></trkpt><trkpt lat="40.87289194805403" lon="8.690964667615898"><ele>179.4</ele><time>2026-05-01T10:30:08.88Z</time></trkpt><trkpt lat="40.872937380441165" lon="8.69083356973282"><ele>182.6</ele><time>2026-05-01T10:30:09.88Z</time></trkpt><trkpt lat="40.87297246112794" lon="8.690696358314966"><ele>185.79999999999998</ele><time>2026-05-01T10:30:10.88Z</time></trkpt><trkpt lat="40.87301540936544" lon="8.690560952805145"><ele>189.0</ele><time>2026-05-01T10:30:11.88Z</time></trkpt><trkpt lat="40.87305873612502" lon="8.690437699074952"><ele>189.0</ele><time>2026-05-01T10:30:12.88Z</time></trkpt><trkpt lat="40.873107188844834" lon="8.690338205576042"><ele>189.0</ele><time>2026-05-01T10:30:13.88Z</time></trkpt><trkpt lat="40.87312915309953" lon="8.690231824666448"><ele>189.0</ele><time>2026-05-01T10:30:14.88Z</time></trkpt><trkpt lat="40.87313223085481" lon="8.690124090659383"><ele>189.0</ele><time>2026-05-01T10:30:15.88Z</time></trkpt><trkpt lat="40.87309018966153" lon="8.690022376555232"><ele>189.0</ele><time>2026-05-01T10:30:16.88Z</time></trkpt><trkpt lat="40.87305163529479" lon="8.689922131803023"><ele>189.0</ele><time>2026-05-01T10:30:17.88Z</time></trkpt><trkpt lat="40.87302122922674" lon="8.689825940471252"><ele>190.5</ele><time>2026-05-01T10:30:18.88Z</time></trkpt><trkpt lat="40.87296216350675" lon="8.689746353886223"><ele>192.0</ele><time>2026-05-01T10:30:19.88Z</time></trkpt><trkpt lat="40.87287956552111" lon="8.689712870837752"><ele>193.5</ele><time>2026-05-01T10:30:20.88Z</time></trkpt><trkpt lat="40.87280167931369" lon="8.689667652286023"><ele>195.0</ele><time>2026-05-01T10:30:21.88Z</time></trkpt><trkpt lat="40.872713933302784" lon="8.68961466636246"><ele>196.5</ele><time>2026-05-01T10:30:22.88Z</time></trkpt><trkpt lat="40.87263923575574" lon="8.689549248493613"><ele>198.0</ele><time>2026-05-01T10:30:23.88Z</time></trkpt><trkpt lat="40.87258379056958" lon="8.689473579439458"><ele>202.8</ele><time>2026-05-01T10:30:24.88Z</time></trkpt><trkpt lat="40.872538299166116" lon="8.689381341980127"><ele>207.60000000000002</ele><time>2026-05-01T10:30:25.88Z</time></trkpt><trkpt lat="40.87250911090376" lon="8.689276763397304"><ele>212.39999999999998</ele><time>2026-05-01T10:30:26.88Z</time></trkpt><trkpt lat="40.872439361216124" lon="8.689199952577212"><ele>217.2</ele><time>2026-05-01T10:30:27.88Z</time></trkpt><trkpt lat="40.87237306702133" lon="8.689095331374531"><ele>222.0</ele><time>2026-05-01T10:30:28.88Z</time></trkpt><trkpt lat="40.87230722771943" lon="8.688990115161399"><ele>222.0</ele><time>2026-05-01T10:30:29.88Z</time></trkpt><trkpt lat="40.872257578936114" lon="8.688865531744291"><ele>222.0</ele><time>2026-05-01T10:30:30.88Z</time></trkpt><trkpt lat="40.87219253270762" lon="8.68877281241633"><ele>222.0</ele><time>2026-05-01T10:30:31.88Z</time></trkpt><trkpt lat="40.87210354769374" lon="8.688692546925123"><ele>222.0</ele><time>2026-05-01T10:30:32.88Z</time></trkpt><trkpt lat="40.87201388862039" lon="8.688606197374012"><ele>222.0</ele><time>2026-05-01T10:30:33.88Z</time></trkpt><trkpt lat="40.87191744978608" lon="8.688533270568465"><ele>219.2</ele><time>2026-05-01T10:30:34.88Z</time></trkpt><trkpt lat="40.871840400354" lon="8.688436921033267"><ele>216.39999999999998</ele><time>2026-05-01T10:30:35.88Z</time></trkpt><trkpt lat="40.8717689318123" lon="8.688336872581214"><ele>213.60000000000002</ele><time>2026-05-01T10:30:36.88Z</time></trkpt><trkpt lat="40.87170629449023" lon="8.68822334538408"><ele>210.8</ele><time>2026-05-01T10:30:37.88Z</time></trkpt><trkpt lat="40.87166862290092" lon="8.688099436363926"><ele>208.0</ele><time>2026-05-01T10:30:38.88Z</time></trkpt><trkpt lat="40.87163410161503" lon="8.688000268142254"><ele>213.83333333333331</ele><time>2026-05-01T10:30:39.88Z</time></trkpt><trkpt lat="40.87159641992175" lon="8.687927825728236"><ele>219.66666666666666</ele><time>2026-05-01T10:30:40.88Z</time></trkpt><trkpt lat="40.87154296785476" lon="8.687873414732188"><ele>225.5</ele><time>2026-05-01T10:30:42.88Z</time></trkpt><trkpt lat="40.87148164876256" lon="8.687937850667232"><ele>231.33333333333331</ele><time>2026-05-01T10:30:44.88Z</time></trkpt><trkpt lat="40.871484598289385" lon="8.688088596003142"><ele>237.16666666666666</ele><time>2026-05-01T10:30:46.878Z</time></trkpt><trkpt lat="40.871503579253044" lon="8.688179611997564"><ele>243.0</ele><time>2026-05-01T10:30:47.878Z</time></trkpt><trkpt lat="40.87152129951202" lon="8.688281145460888"><ele>243.0</ele><time>2026-05-01T10:30:48.878Z</time></trkpt><trkpt lat="40.87154415904458" lon="8.688389299875062"><ele>243.0</ele><time>2026-05-01T10:30:49.878Z</time></trkpt><trkpt lat="40.871573428071656" lon="8.688501295785047"><ele>243.0</ele><time>2026-05-01T10:30:50.878Z</time></trkpt><trkpt lat="40.87161261201976" lon="8.688616782609955"><ele>243.0</ele><time>2026-05-01T10:30:51.878Z</time></trkpt><trkpt lat="40.871655697777044" lon="8.688736973868705"><ele>243.0</ele><time>2026-05-01T10:30:52.878Z</time></trkpt><trkpt lat="40.87170625406639" lon="8.688858795551058"><ele>245.60000000000002</ele><time>2026-05-01T10:30:53.878Z</time></trkpt><trkpt lat="40.871764454158146" lon="8.688976435651265"><ele>248.20000000000002</ele><time>2026-05-01T10:30:54.878Z</time></trkpt><trkpt lat="40.87182933133082" lon="8.68908556446028"><ele>250.8</ele><time>2026-05-01T10:30:55.878Z</time></trkpt><trkpt lat="40.8718951565841" lon="8.68918548385411"><ele>253.4</ele><time>2026-05-01T10:30:56.878Z</time></trkpt><trkpt lat="40.87196130135891" lon="8.689273476830609"><ele>256.0</ele><time>2026-05-01T10:30:57.878Z</time></trkpt><trkpt lat="40.87202518767355" lon="8.689364777159481"><ele>252.7142857142857</ele><time>2026-05-01T10:30:58.878Z</time></trkpt><trkpt lat="40.87207586347128" lon="8.689459772412372"><ele>249.4285714285714</ele><time>2026-05-01T10:30:59.878Z</time></trkpt><trkpt lat="40.8721114861336" lon="8.689556027381139"><ele>246.14285714285714</ele><time>2026-05-01T10:31:00.878Z</time></trkpt><trkpt lat="40.87213460490134" lon="8.68964712392253"><ele>242.85714285714283</ele><time>2026-05-01T10:31:01.878Z</time></trkpt><trkpt lat="40.8721456873879" lon="8.689734624509319"><ele>239.57142857142856</ele><time>2026-05-01T10:31:02.878Z</time></trkpt><trkpt lat="40.87213664212295" lon="8.6898256982363"><ele>236.28571428571428</ele><time>2026-05-01T10:31:03.878Z</time></trkpt><trkpt lat="40.87211868916579" lon="8.689913476963627"><ele>233.0</ele><time>2026-05-01T10:31:04.878Z</time></trkpt><trkpt lat="40.87211367286594" lon="8.690005711306139"><ele>233.0</ele><time>2026-05-01T10:31:05.878Z</time></trkpt><trkpt lat="40.872081996233625" lon="8.690106950140512"><ele>233.0</ele><time>2026-05-01T10:31:06.878Z</time></trkpt><trkpt lat="40.87203398121877" lon="8.690206895446089"><ele>233.0</ele><time>2026-05-01T10:31:07.878Z</time></trkpt><trkpt lat="40.871976476293995" lon="8.690317970963369"><ele>233.0</ele><time>2026-05-01T10:31:08.878Z</time></trkpt><trkpt lat="40.87192326306272" lon="8.690427350338153"><ele>233.0</ele><time>2026-05-01T10:31:09.878Z</time></trkpt><trkpt lat="40.871863024770114" lon="8.69052949479873"><ele>231.2</ele><time>2026-05-01T10:31:10.878Z</time></trkpt><trkpt lat="40.871794842739924" lon="8.690612623074442"><ele>229.4</ele><time>2026-05-01T10:31:11.878Z</time></trkpt><trkpt lat="40.87171105862176" lon="8.690649702305825"><ele>227.59999999999997</ele><time>2026-05-01T10:31:12.878Z</time></trkpt><trkpt lat="40.871621991550434" lon="8.690677466935027"><ele>225.79999999999998</ele><time>2026-05-01T10:31:13.878Z</time></trkpt><trkpt lat="40.87153445361447" lon="8.6907308898765"><ele>224.0</ele><time>2026-05-01T10:31:14.878Z</time></trkpt><trkpt lat="40.871451854616055" lon="8.690804465298637"><ele>229.50000000000003</ele><time>2026-05-01T10:31:15.878Z</time></trkpt><trkpt lat="40.87138539768547" lon="8.69087906668737"><ele>235.0</ele><time>2026-05-01T10:31:16.878Z</time></trkpt><trkpt lat="40.87131978567461" lon="8.690931166349907"><ele>240.5</ele><time>2026-05-01T10:31:17.878Z</time></trkpt><trkpt lat="40.871205055041706" lon="8.690976163811014"><ele>246.0</ele><time>2026-05-01T10:31:19.878Z</time></trkpt><trkpt lat="40.87115707798442" lon="8.690898295506551"><ele>251.50000000000003</ele><time>2026-05-01T10:31:20.878Z</time></trkpt><trkpt lat="40.87109854263261" lon="8.690850787331165"><ele>257.0</ele><time>2026-05-01T10:31:21.878Z</time></trkpt><trkpt lat="40.87102627048249" lon="8.690795524491314"><ele>257.0</ele><time>2026-05-01T10:31:22.878Z</time></trkpt><trkpt lat="40.87096614956439" lon="8.690710941244445"><ele>257.0</ele><time>2026-05-01T10:31:23.878Z</time></trkpt><trkpt lat="40.87091560018694" lon="8.690607451491363"><ele>257.0</ele><time>2026-05-01T10:31:24.878Z</time></trkpt><trkpt lat="40.870837264144285" lon="8.690525009835916"><ele>257.0</ele><time>2026-05-01T10:31:25.878Z</time></trkpt><trkpt lat="40.87076757987243" lon="8.690437072966741"><ele>257.0</ele><time>2026-05-01T10:31:26.878Z</time></trkpt><trkpt lat="40.87067621301262" lon="8.69036022216523"><ele>258.0</ele><time>2026-05-01T10:31:27.878Z</time></trkpt><trkpt lat="40.870554835417245" lon="8.690274712085557"><ele>259.0</ele><time>2026-05-01T10:31:28.878Z</time></trkpt><trkpt lat="40.87043682225059" lon="8.690204842759144"><ele>260.0</ele><time>2026-05-01T10:31:29.878Z</time></trkpt><trkpt lat="40.87032493134114" lon="8.690123117284452"><ele>261.0</ele><time>2026-05-01T10:31:30.878Z</time></trkpt><trkpt lat="40.870218811064895" lon="8.690039062757513"><ele>266.0</ele><time>2026-05-01T10:31:31.878Z</time></trkpt><trkpt lat="40.87010709779886" lon="8.689958766358256"><ele>271.0</ele><time>2026-05-01T10:31:32.878Z</time></trkpt><trkpt lat="40.87000825229306" lon="8.689890389362677"><ele>276.0</ele><time>2026-05-01T10:31:33.878Z</time></trkpt><trkpt lat="40.869907213982614" lon="8.689825802529478"><ele>281.0</ele><time>2026-05-01T10:31:34.878Z</time></trkpt><trkpt lat="40.86981948947272" lon="8.68974999037197"><ele>281.0</ele><time>2026-05-01T10:31:35.878Z</time></trkpt><trkpt lat="40.86974941981155" lon="8.689660922392372"><ele>281.0</ele><time>2026-05-01T10:31:36.878Z</time></trkpt><trkpt lat="40.86970451601862" lon="8.689525797345599"><ele>281.0</ele><time>2026-05-01T10:31:37.878Z</time></trkpt><trkpt lat="40.869633960950694" lon="8.689392188515711"><ele>281.0</ele><time>2026-05-01T10:31:38.878Z</time></trkpt><trkpt lat="40.86955640652269" lon="8.68927101939557"><ele>286.0</ele><time>2026-05-01T10:31:39.878Z</time></trkpt><trkpt lat="40.86949395018061" lon="8.689125712554855"><ele>291.0</ele><time>2026-05-01T10:31:40.878Z</time></trkpt><trkpt lat="40.869436626575336" lon="8.688977717921922"><ele>296.0</ele><time>2026-05-01T10:31:41.878Z</time></trkpt><trkpt lat="40.86939568901967" lon="8.688840595517009"><ele>301.0</ele><time>2026-05-01T10:31:42.878Z</time></trkpt><trkpt lat="40.869383986449634" lon="8.68872128008536"><ele>301.0</ele><time>2026-05-01T10:31:43.878Z</time></trkpt><trkpt lat="40.86932417905972" lon="8.68860905053773"><ele>301.0</ele><time>2026-05-01T10:31:45.878Z</time></trkpt><trkpt lat="40.86922479193963" lon="8.68863348443319"><ele>301.0</ele><time>2026-05-01T10:31:46.878Z</time></trkpt><trkpt lat="40.86914088309845" lon="8.688631959795067"><ele>301.0</ele><time>2026-05-01T10:31:47.878Z</time></trkpt><trkpt lat="40.86903594966114" lon="8.688629471419604"><ele>301.0</ele><time>2026-05-01T10:31:48.878Z</time></trkpt><trkpt lat="40.868923917783285" lon="8.688602742536046"><ele>298.75</ele><time>2026-05-01T10:31:49.878Z</time></trkpt><trkpt lat="40.868804294995606" lon="8.688602463045713"><ele>296.5</ele><time>2026-05-01T10:31:50.878Z</time></trkpt><trkpt lat="40.868684764440076" lon="8.688603299270827"><ele>294.25</ele><time>2026-05-01T10:31:51.878Z</time></trkpt><trkpt lat="40.86857265440574" lon="8.688603707141501"><ele>292.0</ele><time>2026-05-01T10:31:52.878Z</time></trkpt><trkpt lat="40.86846521433251" lon="8.68863241593382"><ele>292.6</ele><time>2026-05-01T10:31:53.878Z</time></trkpt><trkpt lat="40.86836289838396" lon="8.688611113153414"><ele>293.2</ele><time>2026-05-01T10:31:54.878Z</time></trkpt><trkpt lat="40.86827804566852" lon="8.688582744617362"><ele>293.8</ele><time>2026-05-01T10:31:55.878Z</time></trkpt><trkpt lat="40.86820244521894" lon="8.688457950582247"><ele>294.4</ele><time>2026-05-01T10:31:57.878Z</time></trkpt><trkpt lat="40.86818932808312" lon="8.688355427114333"><ele>295.0</ele><time>2026-05-01T10:31:58.878Z</time></trkpt><trkpt lat="40.86817627323267" lon="8.68824163727793"><ele>298.4</ele><time>2026-05-01T10:31:59.878Z</time></trkpt><trkpt lat="40.86818018613497" lon="8.688109581513952"><ele>301.8</ele><time>2026-05-01T10:32:00.878Z</time></trkpt><trkpt lat="40.86815174036361" lon="8.68797303046921"><ele>305.2</ele><time>2026-05-01T10:32:01.878Z</time></trkpt><trkpt lat="40.86812701001741" lon="8.687844019495047"><ele>308.6</ele><time>2026-05-01T10:32:02.878Z</time></trkpt><trkpt lat="40.86809178456201" lon="8.687715410388913"><ele>312.0</ele><time>2026-05-01T10:32:03.878Z</time></trkpt><trkpt lat="40.86808616251144" lon="8.68758171039227"><ele>313.4</ele><time>2026-05-01T10:32:04.878Z</time></trkpt><trkpt lat="40.86811026208343" lon="8.687443118540367"><ele>314.79999999999995</ele><time>2026-05-01T10:32:05.878Z</time></trkpt><trkpt lat="40.868098294811446" lon="8.687300572916714"><ele>316.2</ele><time>2026-05-01T10:32:06.878Z</time></trkpt><trkpt lat="40.86810169456003" lon="8.687156077690682"><ele>317.59999999999997</ele><time>2026-05-01T10:32:07.878Z</time></trkpt><trkpt lat="40.868107852349084" lon="8.687021319744446"><ele>319.0</ele><time>2026-05-01T10:32:08.878Z</time></trkpt><trkpt lat="40.86810625384225" lon="8.686881366958298"><ele>320.6</ele><time>2026-05-01T10:32:09.878Z</time></trkpt><trkpt lat="40.86809512704908" lon="8.686772556801113"><ele>322.2</ele><time>2026-05-01T10:32:10.878Z</time></trkpt><trkpt lat="40.86804630604642" lon="8.686641576382511"><ele>323.8</ele><time>2026-05-01T10:32:12.878Z</time></trkpt><trkpt lat="40.8679499211741" lon="8.686573743893085"><ele>325.40000000000003</ele><time>2026-05-01T10:32:14.878Z</time></trkpt><trkpt lat="40.867883640372945" lon="8.686515360191528"><ele>327.0</ele><time>2026-05-01T10:32:15.878Z</time></trkpt><trkpt lat="40.86779830626537" lon="8.686490114944123"><ele>327.0</ele><time>2026-05-01T10:32:16.878Z</time></trkpt><trkpt lat="40.86770183121332" lon="8.686474943611099"><ele>327.0</ele><time>2026-05-01T10:32:17.878Z</time></trkpt><trkpt lat="40.86759466903067" lon="8.686463486384092"><ele>327.0</ele><time>2026-05-01T10:32:18.878Z</time></trkpt><trkpt lat="40.86748090786482" lon="8.686471567300869"><ele>327.0</ele><time>2026-05-01T10:32:19.878Z</time></trkpt><trkpt lat="40.867380734926755" lon="8.686440058712975"><ele>327.0</ele><time>2026-05-01T10:32:20.878Z</time></trkpt><trkpt lat="40.86727379589654" lon="8.686414752265675"><ele>330.20000000000005</ele><time>2026-05-01T10:32:21.878Z</time></trkpt><trkpt lat="40.86716622817868" lon="8.686385235510697"><ele>333.4</ele><time>2026-05-01T10:32:22.878Z</time></trkpt><trkpt lat="40.86706167924027" lon="8.686350163940558"><ele>336.6</ele><time>2026-05-01T10:32:23.878Z</time></trkpt><trkpt lat="40.866967690829085" lon="8.686321023827938"><ele>339.79999999999995</ele><time>2026-05-01T10:32:24.878Z</time></trkpt><trkpt lat="40.86687175247432" lon="8.686297265964434"><ele>343.0</ele><time>2026-05-01T10:32:25.878Z</time></trkpt><trkpt lat="40.86676979284622" lon="8.68626805555804"><ele>345.5</ele><time>2026-05-01T10:32:26.878Z</time></trkpt><trkpt lat="40.866665822277305" lon="8.686241193292789"><ele>348.0</ele><time>2026-05-01T10:32:27.878Z</time></trkpt><trkpt lat="40.86655220928034" lon="8.686218947834742"><ele>350.5</ele><time>2026-05-01T10:32:28.878Z</time></trkpt><trkpt lat="40.86643488519516" lon="8.686195273704598"><ele>353.0</ele><time>2026-05-01T10:32:29.878Z</time></trkpt><trkpt lat="40.86631978354433" lon="8.686168490791868"><ele>353.0</ele><time>2026-05-01T10:32:30.878Z</time></trkpt><trkpt lat="40.86621778371779" lon="8.686140958410418"><ele>353.0</ele><time>2026-05-01T10:32:31.878Z</time></trkpt><trkpt lat="40.86613092171765" lon="8.686123328470666"><ele>353.0</ele><time>2026-05-01T10:32:32.878Z</time></trkpt><trkpt lat="40.866051199597614" lon="8.686113883014093"><ele>353.0</ele><time>2026-05-01T10:32:33.878Z</time></trkpt><trkpt lat="40.86596581609623" lon="8.6860952412573"><ele>353.0</ele><time>2026-05-01T10:32:34.878Z</time></trkpt><trkpt lat="40.865866543074816" lon="8.686099437636855"><ele>353.5</ele><time>2026-05-01T10:32:35.878Z</time></trkpt><trkpt lat="40.865773635713964" lon="8.686100742074252"><ele>354.0</ele><time>2026-05-01T10:32:36.879Z</time></trkpt><trkpt lat="40.8656842317622" lon="8.686099940013495"><ele>354.5</ele><time>2026-05-01T10:32:37.879Z</time></trkpt><trkpt lat="40.86559590523888" lon="8.686091971286816"><ele>355.0</ele><time>2026-05-01T10:32:38.879Z</time></trkpt><trkpt lat="40.86551207395059" lon="8.686079540581648"><ele>355.5</ele><time>2026-05-01T10:32:39.879Z</time></trkpt><trkpt lat="40.86543671669251" lon="8.686064328920462"><ele>356.0</ele><time>2026-05-01T10:32:40.879Z</time></trkpt><trkpt lat="40.865322031950086" lon="8.686042618727978"><ele>356.0</ele><time>2026-05-01T10:32:42.879Z</time></trkpt><trkpt lat="40.86524455965246" lon="8.685999829990463"><ele>356.0</ele><time>2026-05-01T10:32:45.879Z</time></trkpt><trkpt lat="40.86529568849083" lon="8.685926305611508"><ele>356.0</ele><time>2026-05-01T10:32:48.879Z</time></trkpt><trkpt lat="40.865352209233734" lon="8.685784383453951"><ele>356.0</ele><time>2026-05-01T10:32:50.879Z</time></trkpt><trkpt lat="40.865371083760415" lon="8.685665688961839"><ele>356.0</ele><time>2026-05-01T10:32:51.876Z</time></trkpt><trkpt lat="40.86539314741115" lon="8.685537477040072"><ele>356.0</ele><time>2026-05-01T10:32:52.877Z</time></trkpt><trkpt lat="40.8654130541574" lon="8.68540412428698"><ele>356.0</ele><time>2026-05-01T10:32:53.877Z</time></trkpt><trkpt lat="40.865446372131984" lon="8.685265042762701"><ele>356.0</ele><time>2026-05-01T10:32:54.877Z</time></trkpt><trkpt lat="40.86545391759532" lon="8.685116837219024"><ele>356.0</ele><time>2026-05-01T10:32:55.877Z</time></trkpt><trkpt lat="40.865446171332806" lon="8.684963388600545"><ele>356.0</ele><time>2026-05-01T10:32:56.877Z</time></trkpt><trkpt lat="40.86542018686926" lon="8.684811523337748"><ele>355.0</ele><time>2026-05-01T10:32:57.877Z</time></trkpt><trkpt lat="40.86538636181736" lon="8.684651879508822"><ele>354.0</ele><time>2026-05-01T10:32:58.877Z</time></trkpt><trkpt lat="40.86534988972433" lon="8.684487338249701"><ele>353.0</ele><time>2026-05-01T10:32:59.877Z</time></trkpt><trkpt lat="40.865312712998794" lon="8.684323942441315"><ele>352.0</ele><time>2026-05-01T10:33:00.877Z</time></trkpt><trkpt lat="40.865273486953306" lon="8.684164405096151"><ele>351.5</ele><time>2026-05-01T10:33:01.877Z</time></trkpt><trkpt lat="40.86522551045272" lon="8.684011347014069"><ele>351.0</ele><time>2026-05-01T10:33:02.877Z</time></trkpt><trkpt lat="40.86517249923017" lon="8.683871366554255"><ele>350.5</ele><time>2026-05-01T10:33:03.877Z</time></trkpt><trkpt lat="40.86513311054806" lon="8.683729028239043"><ele>350.0</ele><time>2026-05-01T10:33:04.876Z</time></trkpt><trkpt lat="40.865114613468506" lon="8.683602783367325"><ele>349.8</ele><time>2026-05-01T10:33:05.877Z</time></trkpt><trkpt lat="40.86512364146646" lon="8.683484763261896"><ele>349.6</ele><time>2026-05-01T10:33:06.877Z</time></trkpt><trkpt lat="40.865140196495915" lon="8.68336743266842"><ele>349.4</ele><time>2026-05-01T10:33:07.877Z</time></trkpt><trkpt lat="40.8651590007378" lon="8.683230176361246"><ele>349.2</ele><time>2026-05-01T10:33:08.877Z</time></trkpt><trkpt lat="40.86519925622725" lon="8.683092850782955"><ele>349.0</ele><time>2026-05-01T10:33:09.877Z</time></trkpt><trkpt lat="40.86521882624851" lon="8.68293196439234"><ele>349.5</ele><time>2026-05-01T10:33:10.877Z</time></trkpt><trkpt lat="40.86522892220123" lon="8.682757344187793"><ele>350.0</ele><time>2026-05-01T10:33:11.877Z</time></trkpt><trkpt lat="40.86522661291107" lon="8.68258880742737"><ele>350.5</ele><time>2026-05-01T10:33:12.877Z</time></trkpt><trkpt lat="40.865212366684524" lon="8.682407938844046"><ele>351.0</ele><time>2026-05-01T10:33:13.877Z</time></trkpt><trkpt lat="40.86519038553079" lon="8.682205880225837"><ele>351.0</ele><time>2026-05-01T10:33:14.877Z</time></trkpt><trkpt lat="40.86515794468064" lon="8.682002908737724"><ele>351.0</ele><time>2026-05-01T10:33:15.877Z</time></trkpt><trkpt lat="40.865119488060174" lon="8.681805575872957"><ele>351.0</ele><time>2026-05-01T10:33:16.877Z</time></trkpt><trkpt lat="40.86507043079471" lon="8.681627396639994"><ele>350.5</ele><time>2026-05-01T10:33:17.877Z</time></trkpt><trkpt lat="40.86503171475399" lon="8.681444935884933"><ele>350.0</ele><time>2026-05-01T10:33:18.877Z</time></trkpt><trkpt lat="40.86500653163092" lon="8.681261461468049"><ele>349.5</ele><time>2026-05-01T10:33:19.877Z</time></trkpt><trkpt lat="40.86498288708962" lon="8.681124116207943"><ele>349.0</ele><time>2026-05-01T10:33:20.877Z</time></trkpt><trkpt lat="40.86496333297447" lon="8.681036771336434"><ele>348.0</ele><time>2026-05-01T10:33:21.877Z</time></trkpt><trkpt lat="40.8649436250373" lon="8.680950369581607"><ele>347.0</ele><time>2026-05-01T10:33:22.877Z</time></trkpt><trkpt lat="40.86490591366883" lon="8.680792237555838"><ele>346.0</ele><time>2026-05-01T10:33:23.877Z</time></trkpt><trkpt lat="40.86489053906063" lon="8.680632287985143"><ele>345.0</ele><time>2026-05-01T10:33:24.877Z</time></trkpt><trkpt lat="40.86487330963917" lon="8.680494018806666"><ele>344.0</ele><time>2026-05-01T10:33:25.877Z</time></trkpt><trkpt lat="40.86487075771223" lon="8.680382834113914"><ele>343.1666666666667</ele><time>2026-05-01T10:33:26.877Z</time></trkpt><trkpt lat="40.86487045554975" lon="8.68026146763112"><ele>342.33333333333337</ele><time>2026-05-01T10:33:27.877Z</time></trkpt><trkpt lat="40.864871168166395" lon="8.680149375459559"><ele>341.5</ele><time>2026-05-01T10:33:28.877Z</time></trkpt><trkpt lat="40.86487794782939" lon="8.680051438663014"><ele>340.6666666666667</ele><time>2026-05-01T10:33:29.877Z</time></trkpt><trkpt lat="40.86489921307998" lon="8.679951737391697"><ele>339.8333333333333</ele><time>2026-05-01T10:33:30.877Z</time></trkpt><trkpt lat="40.86492060335974" lon="8.67983121535239"><ele>339.0</ele><time>2026-05-01T10:33:31.877Z</time></trkpt><trkpt lat="40.86493661485149" lon="8.67972830789413"><ele>339.0</ele><time>2026-05-01T10:33:32.877Z</time></trkpt><trkpt lat="40.86494670786994" lon="8.679631214984903"><ele>339.0</ele><time>2026-05-01T10:33:33.877Z</time></trkpt><trkpt lat="40.86492128468499" lon="8.67945231982852"><ele>339.0</ele><time>2026-05-01T10:33:35.877Z</time></trkpt><trkpt lat="40.864893976735104" lon="8.679364159208724"><ele>339.0</ele><time>2026-05-01T10:33:36.877Z</time></trkpt><trkpt lat="40.86485561401037" lon="8.679249554196454"><ele>339.0</ele><time>2026-05-01T10:33:37.877Z</time></trkpt><trkpt lat="40.864802015432645" lon="8.67915436683942"><ele>338.6</ele><time>2026-05-01T10:33:38.877Z</time></trkpt><trkpt lat="40.86473976352521" lon="8.679069816873817"><ele>338.2</ele><time>2026-05-01T10:33:39.877Z</time></trkpt><trkpt lat="40.86468804652704" lon="8.67896862246205"><ele>337.8</ele><time>2026-05-01T10:33:40.877Z</time></trkpt><trkpt lat="40.864632420434255" lon="8.678860263830307"><ele>337.40000000000003</ele><time>2026-05-01T10:33:41.877Z</time></trkpt><trkpt lat="40.86458956448698" lon="8.678746209728686"><ele>337.0</ele><time>2026-05-01T10:33:42.877Z</time></trkpt><trkpt lat="40.864530471055566" lon="8.678659500168964"><ele>338.0</ele><time>2026-05-01T10:33:43.877Z</time></trkpt><trkpt lat="40.8644800809041" lon="8.678562496120184"><ele>339.0</ele><time>2026-05-01T10:33:44.877Z</time></trkpt><trkpt lat="40.864431023345134" lon="8.678471041873454"><ele>340.0</ele><time>2026-05-01T10:33:45.877Z</time></trkpt><trkpt lat="40.86436941479014" lon="8.678364133857619"><ele>341.0</ele><time>2026-05-01T10:33:46.877Z</time></trkpt><trkpt lat="40.86430869014121" lon="8.678270113348939"><ele>342.0</ele><time>2026-05-01T10:33:47.877Z</time></trkpt><trkpt lat="40.8642487229996" lon="8.678190055302132"><ele>341.5</ele><time>2026-05-01T10:33:48.877Z</time></trkpt><trkpt lat="40.86418663887253" lon="8.678092311558862"><ele>341.0</ele><time>2026-05-01T10:33:49.877Z</time></trkpt><trkpt lat="40.86411991298237" lon="8.677985737349172"><ele>340.5</ele><time>2026-05-01T10:33:50.877Z</time></trkpt><trkpt lat="40.86407672546126" lon="8.677896637074376"><ele>340.0</ele><time>2026-05-01T10:33:51.877Z</time></trkpt><trkpt lat="40.86404818001105" lon="8.677808545826391"><ele>339.5</ele><time>2026-05-01T10:33:52.877Z</time></trkpt><trkpt lat="40.86399800102746" lon="8.67770911816458"><ele>339.0</ele><time>2026-05-01T10:33:53.877Z</time></trkpt><trkpt lat="40.86393052865082" lon="8.677597817445847"><ele>339.0</ele><time>2026-05-01T10:33:54.877Z</time></trkpt><trkpt lat="40.86388093082809" lon="8.677481904116474"><ele>339.0</ele><time>2026-05-01T10:33:55.877Z</time></trkpt><trkpt lat="40.86365967160041" lon="8.676997126008922"><ele>340.0</ele><time>2026-05-01T10:33:56.877Z</time></trkpt><trkpt lat="40.86359297589543" lon="8.67684722863141"><ele>341.0</ele><time>2026-05-01T10:33:57.877Z</time></trkpt><trkpt lat="40.863531926913694" lon="8.676691853206357"><ele>342.0</ele><time>2026-05-01T10:33:58.877Z</time></trkpt><trkpt lat="40.86347577105169" lon="8.676547741516394"><ele>343.0</ele><time>2026-05-01T10:33:59.877Z</time></trkpt><trkpt lat="40.863440454758724" lon="8.676391855629966"><ele>340.4</ele><time>2026-05-01T10:34:00.877Z</time></trkpt><trkpt lat="40.86340541796093" lon="8.676261836203567"><ele>337.79999999999995</ele><time>2026-05-01T10:34:01.877Z</time></trkpt><trkpt lat="40.86338580406398" lon="8.676139031083208"><ele>335.2</ele><time>2026-05-01T10:34:02.877Z</time></trkpt><trkpt lat="40.86334524238022" lon="8.676019903382166"><ele>332.6</ele><time>2026-05-01T10:34:03.877Z</time></trkpt><trkpt lat="40.863341177779354" lon="8.675891870107238"><ele>330.0</ele><time>2026-05-01T10:34:04.877Z</time></trkpt><trkpt lat="40.863333027871114" lon="8.675746579336023"><ele>330.0</ele><time>2026-05-01T10:34:05.877Z</time></trkpt><trkpt lat="40.863324092197765" lon="8.675596898210273"><ele>330.0</ele><time>2026-05-01T10:34:06.877Z</time></trkpt><trkpt lat="40.86331746340828" lon="8.675467804542993"><ele>330.0</ele><time>2026-05-01T10:34:07.877Z</time></trkpt><trkpt lat="40.86331237643946" lon="8.675347203731631"><ele>330.0</ele><time>2026-05-01T10:34:08.877Z</time></trkpt><trkpt lat="40.86331767858749" lon="8.67524097868038"><ele>330.0</ele><time>2026-05-01T10:34:09.877Z</time></trkpt><trkpt lat="40.86333333801865" lon="8.675139064421423"><ele>330.1666666666667</ele><time>2026-05-01T10:34:10.877Z</time></trkpt><trkpt lat="40.86336288419454" lon="8.675044113810113"><ele>330.3333333333333</ele><time>2026-05-01T10:34:11.877Z</time></trkpt><trkpt lat="40.863397033114005" lon="8.674943967107614"><ele>330.5</ele><time>2026-05-01T10:34:12.877Z</time></trkpt><trkpt lat="40.8634354493541" lon="8.674843736845782"><ele>330.66666666666663</ele><time>2026-05-01T10:34:13.877Z</time></trkpt><trkpt lat="40.86347123948106" lon="8.674740666067144"><ele>330.8333333333333</ele><time>2026-05-01T10:34:14.877Z</time></trkpt><trkpt lat="40.863506455928146" lon="8.674632017137613"><ele>331.0</ele><time>2026-05-01T10:34:15.877Z</time></trkpt><trkpt lat="40.863532434323034" lon="8.674521261019377"><ele>330.0</ele><time>2026-05-01T10:34:16.877Z</time></trkpt><trkpt lat="40.863553073154726" lon="8.674400230524293"><ele>329.0</ele><time>2026-05-01T10:34:17.877Z</time></trkpt><trkpt lat="40.86356613293218" lon="8.674262235751712"><ele>328.0</ele><time>2026-05-01T10:34:18.877Z</time></trkpt><trkpt lat="40.863573110655196" lon="8.674103279736041"><ele>327.0</ele><time>2026-05-01T10:34:19.877Z</time></trkpt><trkpt lat="40.86358817666046" lon="8.673935276357769"><ele>326.0</ele><time>2026-05-01T10:34:20.877Z</time></trkpt><trkpt lat="40.86360512970272" lon="8.673779922514926"><ele>326.0</ele><time>2026-05-01T10:34:21.877Z</time></trkpt><trkpt lat="40.863626722325904" lon="8.673629352910865"><ele>326.0</ele><time>2026-05-01T10:34:22.877Z</time></trkpt><trkpt lat="40.86364859443662" lon="8.673475572716148"><ele>326.0</ele><time>2026-05-01T10:34:23.877Z</time></trkpt><trkpt lat="40.86366543741547" lon="8.673316027974238"><ele>326.0</ele><time>2026-05-01T10:34:24.877Z</time></trkpt><trkpt lat="40.86366504650416" lon="8.673159409115925"><ele>327.5</ele><time>2026-05-01T10:34:25.877Z</time></trkpt><trkpt lat="40.86366213149983" lon="8.673004036128942"><ele>329.0</ele><time>2026-05-01T10:34:26.877Z</time></trkpt><trkpt lat="40.863652457058684" lon="8.672851234261884"><ele>330.5</ele><time>2026-05-01T10:34:27.877Z</time></trkpt><trkpt lat="40.863630915448624" lon="8.672695861853773"><ele>332.0</ele><time>2026-05-01T10:34:28.877Z</time></trkpt><trkpt lat="40.86362189514472" lon="8.672542854894795"><ele>332.75</ele><time>2026-05-01T10:34:29.877Z</time></trkpt><trkpt lat="40.8635830566563" lon="8.672389331140717"><ele>333.5</ele><time>2026-05-01T10:34:30.877Z</time></trkpt><trkpt lat="40.86354531449349" lon="8.672230447613353"><ele>334.25</ele><time>2026-05-01T10:34:31.877Z</time></trkpt><trkpt lat="40.8635117840717" lon="8.67205355750874"><ele>335.0</ele><time>2026-05-01T10:34:32.877Z</time></trkpt><trkpt lat="40.86348241054304" lon="8.67187371340258"><ele>335.5</ele><time>2026-05-01T10:34:33.877Z</time></trkpt><trkpt lat="40.8634589547588" lon="8.67169477652659"><ele>336.0</ele><time>2026-05-01T10:34:34.877Z</time></trkpt><trkpt lat="40.863437273982186" lon="8.671524475224684"><ele>336.5</ele><time>2026-05-01T10:34:35.877Z</time></trkpt><trkpt lat="40.86342165841786" lon="8.671354557648705"><ele>337.0</ele><time>2026-05-01T10:34:36.877Z</time></trkpt><trkpt lat="40.863407143009" lon="8.671187625087247"><ele>335.5</ele><time>2026-05-01T10:34:37.877Z</time></trkpt><trkpt lat="40.86339385584956" lon="8.671026536295688"><ele>334.0</ele><time>2026-05-01T10:34:38.877Z</time></trkpt><trkpt lat="40.863385442527466" lon="8.67087389849006"><ele>332.5</ele><time>2026-05-01T10:34:39.877Z</time></trkpt><trkpt lat="40.86338821995006" lon="8.670711526832532"><ele>331.0</ele><time>2026-05-01T10:34:40.877Z</time></trkpt><trkpt lat="40.8634015232622" lon="8.670542954550616"><ele>331.0</ele><time>2026-05-01T10:34:41.877Z</time></trkpt><trkpt lat="40.863417686043945" lon="8.670371576318857"><ele>331.0</ele><time>2026-05-01T10:34:42.877Z</time></trkpt><trkpt lat="40.863433684776524" lon="8.670204787531791"><ele>331.0</ele><time>2026-05-01T10:34:43.877Z</time></trkpt><trkpt lat="40.86344555259325" lon="8.670050306114106"><ele>331.0</ele><time>2026-05-01T10:34:44.877Z</time></trkpt><trkpt lat="40.8634680477452" lon="8.669904642238032"><ele>332.5</ele><time>2026-05-01T10:34:45.877Z</time></trkpt><trkpt lat="40.863511782330654" lon="8.669774354344863"><ele>334.0</ele><time>2026-05-01T10:34:46.877Z</time></trkpt><trkpt lat="40.86356694717042" lon="8.669634086279583"><ele>335.5</ele><time>2026-05-01T10:34:47.877Z</time></trkpt><trkpt lat="40.863619214816126" lon="8.669493164434533"><ele>337.0</ele><time>2026-05-01T10:34:48.877Z</time></trkpt><trkpt lat="40.86366624347177" lon="8.66935194835846"><ele>337.0</ele><time>2026-05-01T10:34:49.877Z</time></trkpt><trkpt lat="40.86369888508822" lon="8.669206860746037"><ele>337.0</ele><time>2026-05-01T10:34:50.877Z</time></trkpt><trkpt lat="40.86372315208146" lon="8.669048803566902"><ele>337.0</ele><time>2026-05-01T10:34:51.877Z</time></trkpt><trkpt lat="40.863744096587276" lon="8.668885526055247"><ele>337.0</ele><time>2026-05-01T10:34:52.877Z</time></trkpt><trkpt lat="40.863770241280875" lon="8.668716034623964"><ele>336.5</ele><time>2026-05-01T10:34:53.878Z</time></trkpt><trkpt lat="40.86379994188659" lon="8.668546628981508"><ele>336.0</ele><time>2026-05-01T10:34:54.878Z</time></trkpt><trkpt lat="40.863828036202435" lon="8.668386426293804"><ele>335.5</ele><time>2026-05-01T10:34:55.878Z</time></trkpt><trkpt lat="40.86385944789465" lon="8.668241751064103"><ele>335.0</ele><time>2026-05-01T10:34:56.878Z</time></trkpt><trkpt lat="40.863879224544036" lon="8.668126963410359"><ele>335.0</ele><time>2026-05-01T10:34:57.876Z</time></trkpt><trkpt lat="40.86389971618295" lon="8.668032771479925"><ele>335.0</ele><time>2026-05-01T10:34:58.875Z</time></trkpt><trkpt lat="40.863906222574556" lon="8.667946837548929"><ele>335.0</ele><time>2026-05-01T10:35:00.876Z</time></trkpt><trkpt lat="40.86382452869491" lon="8.667929865635989"><ele>335.0</ele><time>2026-05-01T10:35:03.876Z</time></trkpt><trkpt lat="40.86375899517682" lon="8.667911269473546"><ele>335.0</ele><time>2026-05-01T10:35:04.876Z</time></trkpt><trkpt lat="40.86366742711011" lon="8.667924335079249"><ele>335.0</ele><time>2026-05-01T10:35:05.876Z</time></trkpt><trkpt lat="40.86357671673569" lon="8.667938299716157"><ele>335.0</ele><time>2026-05-01T10:35:06.876Z</time></trkpt><trkpt lat="40.86348861013006" lon="8.667953077365766"><ele>335.0</ele><time>2026-05-01T10:35:07.876Z</time></trkpt><trkpt lat="40.86341130020422" lon="8.667957295279605"><ele>335.0</ele><time>2026-05-01T10:35:08.876Z</time></trkpt><trkpt lat="40.86333365851924" lon="8.66797341006978"><ele>335.0</ele><time>2026-05-01T10:35:09.875Z</time></trkpt><trkpt lat="40.86325630259364" lon="8.667936006702984"><ele>335.0</ele><time>2026-05-01T10:35:10.875Z</time></trkpt><trkpt lat="40.86319051158831" lon="8.667849676078882"><ele>335.0</ele><time>2026-05-01T10:35:11.875Z</time></trkpt><trkpt lat="40.8631134782578" lon="8.667808675714568"><ele>333.33333333333337</ele><time>2026-05-01T10:35:12.875Z</time></trkpt><trkpt lat="40.86306325413165" lon="8.667744838697242"><ele>331.6666666666667</ele><time>2026-05-01T10:35:13.875Z</time></trkpt><trkpt lat="40.86302373711207" lon="8.667661606026206"><ele>330.0</ele><time>2026-05-01T10:35:14.875Z</time></trkpt><trkpt lat="40.86302007313385" lon="8.667543070770654"><ele>328.3333333333333</ele><time>2026-05-01T10:35:15.875Z</time></trkpt><trkpt lat="40.86297648926874" lon="8.667424579289015"><ele>326.66666666666663</ele><time>2026-05-01T10:35:16.875Z</time></trkpt><trkpt lat="40.86295598688399" lon="8.66730743473132"><ele>325.0</ele><time>2026-05-01T10:35:17.875Z</time></trkpt><trkpt lat="40.86291079423749" lon="8.667195209614754"><ele>325.0</ele><time>2026-05-01T10:35:18.875Z</time></trkpt><trkpt lat="40.86287518730441" lon="8.667085948449847"><ele>325.0</ele><time>2026-05-01T10:35:19.875Z</time></trkpt><trkpt lat="40.862826615532725" lon="8.66698325423188"><ele>325.0</ele><time>2026-05-01T10:35:20.875Z</time></trkpt><trkpt lat="40.86277632449069" lon="8.666872871658892"><ele>325.0</ele><time>2026-05-01T10:35:21.875Z</time></trkpt><trkpt lat="40.86271503662986" lon="8.666761426178889"><ele>325.0</ele><time>2026-05-01T10:35:22.875Z</time></trkpt><trkpt lat="40.862659841080266" lon="8.666671856402282"><ele>323.5</ele><time>2026-05-01T10:35:23.875Z</time></trkpt><trkpt lat="40.86258515669524" lon="8.666556270815994"><ele>322.0</ele><time>2026-05-01T10:35:24.875Z</time></trkpt><trkpt lat="40.86250833495446" lon="8.666432328452036"><ele>320.5</ele><time>2026-05-01T10:35:25.875Z</time></trkpt><trkpt lat="40.86242739185239" lon="8.666321239526233"><ele>319.0</ele><time>2026-05-01T10:35:26.875Z</time></trkpt><trkpt lat="40.86234877870966" lon="8.66620070061987"><ele>317.5</ele><time>2026-05-01T10:35:27.875Z</time></trkpt><trkpt lat="40.862259450358884" lon="8.666088371165815"><ele>316.0</ele><time>2026-05-01T10:35:28.875Z</time></trkpt><trkpt lat="40.86215198933212" lon="8.665991741004095"><ele>314.5</ele><time>2026-05-01T10:35:29.875Z</time></trkpt><trkpt lat="40.862060647230905" lon="8.665872367452776"><ele>313.0</ele><time>2026-05-01T10:35:30.875Z</time></trkpt><trkpt lat="40.86196247847536" lon="8.665763052990046"><ele>313.0</ele><time>2026-05-01T10:35:31.875Z</time></trkpt><trkpt lat="40.86186505596322" lon="8.665648182544516"><ele>313.0</ele><time>2026-05-01T10:35:32.875Z</time></trkpt><trkpt lat="40.86177708039308" lon="8.665530987362251"><ele>313.0</ele><time>2026-05-01T10:35:33.875Z</time></trkpt><trkpt lat="40.86169372739623" lon="8.665423669949856"><ele>313.0</ele><time>2026-05-01T10:35:34.875Z</time></trkpt><trkpt lat="40.86163281004311" lon="8.665320037965884"><ele>310.4</ele><time>2026-05-01T10:35:35.875Z</time></trkpt><trkpt lat="40.86155894560322" lon="8.665239787951359"><ele>307.8</ele><time>2026-05-01T10:35:36.875Z</time></trkpt><trkpt lat="40.8614827305528" lon="8.665160167198964"><ele>305.2</ele><time>2026-05-01T10:35:37.875Z</time></trkpt><trkpt lat="40.86140963358906" lon="8.665090084259608"><ele>302.6</ele><time>2026-05-01T10:35:38.875Z</time></trkpt><trkpt lat="40.861333921591246" lon="8.665034375516484"><ele>300.0</ele><time>2026-05-01T10:35:39.875Z</time></trkpt><trkpt lat="40.86125738186416" lon="8.664990475500954"><ele>300.0</ele><time>2026-05-01T10:35:40.875Z</time></trkpt><trkpt lat="40.86118515099094" lon="8.664958757555409"><ele>300.0</ele><time>2026-05-01T10:35:41.875Z</time></trkpt><trkpt lat="40.86111149343289" lon="8.664912476352232"><ele>300.0</ele><time>2026-05-01T10:35:42.875Z</time></trkpt><trkpt lat="40.861025586825924" lon="8.664876794168979"><ele>300.0</ele><time>2026-05-01T10:35:43.875Z</time></trkpt><trkpt lat="40.86094740163794" lon="8.664844633895033"><ele>300.0</ele><time>2026-05-01T10:35:44.875Z</time></trkpt><trkpt lat="40.86087557328879" lon="8.664814031776764"><ele>300.0</ele><time>2026-05-01T10:35:45.875Z</time></trkpt><trkpt lat="40.86079716559642" lon="8.664796698659767"><ele>300.6666666666667</ele><time>2026-05-01T10:35:46.875Z</time></trkpt><trkpt lat="40.86071928475504" lon="8.664783655401306"><ele>301.3333333333333</ele><time>2026-05-01T10:35:47.875Z</time></trkpt><trkpt lat="40.86064422755854" lon="8.664770221371734"><ele>302.0</ele><time>2026-05-01T10:35:48.875Z</time></trkpt><trkpt lat="40.860561744639405" lon="8.664758947798047"><ele>302.66666666666663</ele><time>2026-05-01T10:35:49.875Z</time></trkpt><trkpt lat="40.86048854178586" lon="8.664752217003702"><ele>303.3333333333333</ele><time>2026-05-01T10:35:50.875Z</time></trkpt><trkpt lat="40.86041766560027" lon="8.664754172677517"><ele>304.0</ele><time>2026-05-01T10:35:51.875Z</time></trkpt><trkpt lat="40.86034363695222" lon="8.66475925501929"><ele>304.0</ele><time>2026-05-01T10:35:52.875Z</time></trkpt><trkpt lat="40.86026571259325" lon="8.664766861261684"><ele>304.0</ele><time>2026-05-01T10:35:53.875Z</time></trkpt><trkpt lat="40.860190168282315" lon="8.66477380862621"><ele>304.0</ele><time>2026-05-01T10:35:54.875Z</time></trkpt><trkpt lat="40.860113773484926" lon="8.664776273252365"><ele>304.0</ele><time>2026-05-01T10:35:55.875Z</time></trkpt><trkpt lat="40.8600342012121" lon="8.664783188415308"><ele>304.0</ele><time>2026-05-01T10:35:56.875Z</time></trkpt><trkpt lat="40.85995779611171" lon="8.664782873656836"><ele>304.0</ele><time>2026-05-01T10:35:57.875Z</time></trkpt><trkpt lat="40.85987748999908" lon="8.664783249828757"><ele>301.2</ele><time>2026-05-01T10:35:58.875Z</time></trkpt><trkpt lat="40.859807870676306" lon="8.664760623558449"><ele>298.4</ele><time>2026-05-01T10:35:59.875Z</time></trkpt><trkpt lat="40.8597397100289" lon="8.664760335388282"><ele>295.6</ele><time>2026-05-01T10:36:00.875Z</time></trkpt><trkpt lat="40.85961805592563" lon="8.664748135312452"><ele>292.8</ele><time>2026-05-01T10:36:02.875Z</time></trkpt><trkpt lat="40.85949978691349" lon="8.664767645950683"><ele>290.0</ele><time>2026-05-01T10:36:04.875Z</time></trkpt><trkpt lat="40.859380289316114" lon="8.664798055883427"><ele>290.0</ele><time>2026-05-01T10:36:06.875Z</time></trkpt><trkpt lat="40.859318534256694" lon="8.664822441002022"><ele>290.0</ele><time>2026-05-01T10:36:07.875Z</time></trkpt><trkpt lat="40.85920066005219" lon="8.664827838605502"><ele>290.0</ele><time>2026-05-01T10:36:09.876Z</time></trkpt><trkpt lat="40.85912155816459" lon="8.664739300555999"><ele>290.0</ele><time>2026-05-01T10:36:11.876Z</time></trkpt><trkpt lat="40.85904623454788" lon="8.664599657626479"><ele>290.0</ele><time>2026-05-01T10:36:13.876Z</time></trkpt><trkpt lat="40.858993113674515" lon="8.664516396262782"><ele>288.33333333333337</ele><time>2026-05-01T10:36:14.876Z</time></trkpt><trkpt lat="40.85894417725357" lon="8.664450676489809"><ele>286.6666666666667</ele><time>2026-05-01T10:36:15.876Z</time></trkpt><trkpt lat="40.85888747543444" lon="8.664399465497553"><ele>285.0</ele><time>2026-05-01T10:36:16.876Z</time></trkpt><trkpt lat="40.85882931555928" lon="8.664354871456995"><ele>283.3333333333333</ele><time>2026-05-01T10:36:17.876Z</time></trkpt><trkpt lat="40.85877302780334" lon="8.664310857847788"><ele>281.66666666666663</ele><time>2026-05-01T10:36:18.876Z</time></trkpt><trkpt lat="40.85867883693917" lon="8.66420090793234"><ele>280.0</ele><time>2026-05-01T10:36:20.876Z</time></trkpt><trkpt lat="40.858600484013344" lon="8.664077950135281"><ele>278.16666666666663</ele><time>2026-05-01T10:36:22.876Z</time></trkpt><trkpt lat="40.85856084899121" lon="8.664003138147383"><ele>276.3333333333333</ele><time>2026-05-01T10:36:23.876Z</time></trkpt><trkpt lat="40.85851612185685" lon="8.663934527363372"><ele>274.5</ele><time>2026-05-01T10:36:24.876Z</time></trkpt><trkpt lat="40.8584820703648" lon="8.663852046204399"><ele>272.6666666666667</ele><time>2026-05-01T10:36:25.876Z</time></trkpt><trkpt lat="40.85846073338972" lon="8.663756888490992"><ele>270.83333333333337</ele><time>2026-05-01T10:36:26.876Z</time></trkpt><trkpt lat="40.8584533901151" lon="8.663646340399051"><ele>269.0</ele><time>2026-05-01T10:36:27.876Z</time></trkpt><trkpt lat="40.85844876928081" lon="8.663530803689712"><ele>267.0</ele><time>2026-05-01T10:36:28.876Z</time></trkpt><trkpt lat="40.858431109615424" lon="8.663414147351538"><ele>265.0</ele><time>2026-05-01T10:36:29.876Z</time></trkpt><trkpt lat="40.85839634916298" lon="8.663309654834896"><ele>263.0</ele><time>2026-05-01T10:36:30.876Z</time></trkpt><trkpt lat="40.858358859327765" lon="8.663204253207711"><ele>261.0</ele><time>2026-05-01T10:36:31.876Z</time></trkpt><trkpt lat="40.85832027147376" lon="8.663126731952104"><ele>259.0</ele><time>2026-05-01T10:36:32.876Z</time></trkpt><trkpt lat="40.85827582373715" lon="8.663047300140782"><ele>257.0</ele><time>2026-05-01T10:36:33.876Z</time></trkpt><trkpt lat="40.85822255701206" lon="8.662990328690043"><ele>257.0</ele><time>2026-05-01T10:36:34.876Z</time></trkpt><trkpt lat="40.85817020998183" lon="8.662910618808928"><ele>257.0</ele><time>2026-05-01T10:36:35.876Z</time></trkpt><trkpt lat="40.858093295209784" lon="8.662865761264213"><ele>257.0</ele><time>2026-05-01T10:36:36.876Z</time></trkpt><trkpt lat="40.85801798157136" lon="8.66284022232485"><ele>257.0</ele><time>2026-05-01T10:36:37.876Z</time></trkpt><trkpt lat="40.85794842602431" lon="8.662812521926268"><ele>257.0</ele><time>2026-05-01T10:36:38.876Z</time></trkpt><trkpt lat="40.85787738714222" lon="8.662778902777903"><ele>257.0</ele><time>2026-05-01T10:36:39.876Z</time></trkpt><trkpt lat="40.85781925772206" lon="8.66272462970756"><ele>258.33333333333337</ele><time>2026-05-01T10:36:40.876Z</time></trkpt><trkpt lat="40.857758744357554" lon="8.66268353683366"><ele>259.6666666666667</ele><time>2026-05-01T10:36:41.876Z</time></trkpt><trkpt lat="40.85773179705749" lon="8.66259572586583"><ele>261.0</ele><time>2026-05-01T10:36:42.876Z</time></trkpt><trkpt lat="40.857679535135716" lon="8.662544093331599"><ele>262.3333333333333</ele><time>2026-05-01T10:36:43.876Z</time></trkpt><trkpt lat="40.85759441417058" lon="8.662420855673155"><ele>263.66666666666663</ele><time>2026-05-01T10:36:45.876Z</time></trkpt><trkpt lat="40.85751703261637" lon="8.662355962036237"><ele>265.0</ele><time>2026-05-01T10:36:46.876Z</time></trkpt><trkpt lat="40.85743722448032" lon="8.662309596492474"><ele>260.3333333333333</ele><time>2026-05-01T10:36:47.876Z</time></trkpt><trkpt lat="40.85736540239405" lon="8.662265296051483"><ele>255.66666666666666</ele><time>2026-05-01T10:36:48.876Z</time></trkpt><trkpt lat="40.85729894366795" lon="8.662222079411638"><ele>251.0</ele><time>2026-05-01T10:36:49.876Z</time></trkpt><trkpt lat="40.85722701951861" lon="8.662189107481325"><ele>246.33333333333331</ele><time>2026-05-01T10:36:50.876Z</time></trkpt><trkpt lat="40.857161403311586" lon="8.662127985457392"><ele>241.66666666666666</ele><time>2026-05-01T10:36:51.876Z</time></trkpt><trkpt lat="40.85710207788722" lon="8.662060909583222"><ele>237.0</ele><time>2026-05-01T10:36:52.876Z</time></trkpt><trkpt lat="40.8570552899347" lon="8.661983326641082"><ele>235.1428571428571</ele><time>2026-05-01T10:36:53.876Z</time></trkpt><trkpt lat="40.85701560456812" lon="8.661899144229803"><ele>233.28571428571428</ele><time>2026-05-01T10:36:54.876Z</time></trkpt><trkpt lat="40.85698725522036" lon="8.661815447785157"><ele>231.42857142857142</ele><time>2026-05-01T10:36:55.876Z</time></trkpt><trkpt lat="40.856970127932726" lon="8.661725057583139"><ele>229.57142857142856</ele><time>2026-05-01T10:36:56.876Z</time></trkpt><trkpt lat="40.856930089515345" lon="8.661658591655655"><ele>227.71428571428572</ele><time>2026-05-01T10:36:57.876Z</time></trkpt><trkpt lat="40.856864682992025" lon="8.661596124486035"><ele>225.85714285714286</ele><time>2026-05-01T10:36:58.876Z</time></trkpt><trkpt lat="40.856791922011226" lon="8.66152894170814"><ele>224.0</ele><time>2026-05-01T10:36:59.876Z</time></trkpt><trkpt lat="40.856697149916755" lon="8.661466494174554"><ele>224.00000000000003</ele><time>2026-05-01T10:37:00.876Z</time></trkpt><trkpt lat="40.85664111684111" lon="8.661364380526638"><ele>224.0</ele><time>2026-05-01T10:37:01.876Z</time></trkpt><trkpt lat="40.856578668512775" lon="8.661285459220146"><ele>224.0</ele><time>2026-05-01T10:37:02.876Z</time></trkpt><trkpt lat="40.856515612483335" lon="8.661209950985857"><ele>224.0</ele><time>2026-05-01T10:37:03.874Z</time></trkpt><trkpt lat="40.856448419468705" lon="8.661137145350677"><ele>224.00000000000003</ele><time>2026-05-01T10:37:04.873Z</time></trkpt><trkpt lat="40.85637408110619" lon="8.661079574485658"><ele>224.0</ele><time>2026-05-01T10:37:05.873Z</time></trkpt><trkpt lat="40.856293249829164" lon="8.661021359167705"><ele>226.00000000000003</ele><time>2026-05-01T10:37:06.874Z</time></trkpt><trkpt lat="40.8562106762212" lon="8.660961733922134"><ele>228.0</ele><time>2026-05-01T10:37:07.874Z</time></trkpt><trkpt lat="40.8561339247527" lon="8.660910069574538"><ele>230.0</ele><time>2026-05-01T10:37:08.874Z</time></trkpt><trkpt lat="40.85606441875417" lon="8.660843706433782"><ele>232.0</ele><time>2026-05-01T10:37:09.874Z</time></trkpt><trkpt lat="40.85599715951712" lon="8.660781352296008"><ele>234.00000000000003</ele><time>2026-05-01T10:37:10.873Z</time></trkpt><trkpt lat="40.85593348431814" lon="8.660716822708908"><ele>236.0</ele><time>2026-05-01T10:37:11.873Z</time></trkpt><trkpt lat="40.8558661467803" lon="8.66065893462338"><ele>231.50000000000003</ele><time>2026-05-01T10:37:12.874Z</time></trkpt><trkpt lat="40.85579625258496" lon="8.66060206737843"><ele>227.0</ele><time>2026-05-01T10:37:13.873Z</time></trkpt><trkpt lat="40.85573081076448" lon="8.660546835777662"><ele>222.5</ele><time>2026-05-01T10:37:14.873Z</time></trkpt><trkpt lat="40.85566486942738" lon="8.660487280368695"><ele>218.0</ele><time>2026-05-01T10:37:15.874Z</time></trkpt><trkpt lat="40.85560170795885" lon="8.660415932730903"><ele>213.50000000000003</ele><time>2026-05-01T10:37:16.873Z</time></trkpt><trkpt lat="40.85554179694896" lon="8.660351385872247"><ele>209.0</ele><time>2026-05-01T10:37:17.874Z</time></trkpt><trkpt lat="40.85549089449662" lon="8.660284757331818"><ele>211.50000000000003</ele><time>2026-05-01T10:37:18.874Z</time></trkpt><trkpt lat="40.85543139359177" lon="8.660223333312171"><ele>214.0</ele><time>2026-05-01T10:37:19.874Z</time></trkpt><trkpt lat="40.8553763000448" lon="8.66014692576219"><ele>216.5</ele><time>2026-05-01T10:37:20.874Z</time></trkpt><trkpt lat="40.855299685589856" lon="8.6600898746304"><ele>219.0</ele><time>2026-05-01T10:37:21.874Z</time></trkpt><trkpt lat="40.85520796401982" lon="8.660065697675364"><ele>221.50000000000003</ele><time>2026-05-01T10:37:22.874Z</time></trkpt><trkpt lat="40.85510862303566" lon="8.660068230057066"><ele>224.0</ele><time>2026-05-01T10:37:23.874Z</time></trkpt><trkpt lat="40.85501133121851" lon="8.66010831330853"><ele>218.0</ele><time>2026-05-01T10:37:24.874Z</time></trkpt><trkpt lat="40.85490825964633" lon="8.660122786835903"><ele>211.99999999999997</ele><time>2026-05-01T10:37:25.874Z</time></trkpt><trkpt lat="40.8547947589917" lon="8.660112954475554"><ele>206.0</ele><time>2026-05-01T10:37:26.874Z</time></trkpt><trkpt lat="40.85468455923128" lon="8.660112631584902"><ele>200.0</ele><time>2026-05-01T10:37:27.874Z</time></trkpt><trkpt lat="40.85459461835213" lon="8.660103885109379"><ele>194.0</ele><time>2026-05-01T10:37:28.874Z</time></trkpt><trkpt lat="40.85451515609484" lon="8.66008610667335"><ele>194.0</ele><time>2026-05-01T10:37:29.874Z</time></trkpt><trkpt lat="40.85442937957627" lon="8.660067590177283"><ele>194.0</ele><time>2026-05-01T10:37:30.874Z</time></trkpt><trkpt lat="40.85432854430589" lon="8.660069514649594"><ele>194.0</ele><time>2026-05-01T10:37:31.874Z</time></trkpt><trkpt lat="40.85423231906618" lon="8.660034237164904"><ele>194.0</ele><time>2026-05-01T10:37:32.874Z</time></trkpt><trkpt lat="40.85413163175852" lon="8.660032015618173"><ele>194.0</ele><time>2026-05-01T10:37:33.874Z</time></trkpt><trkpt lat="40.854042604022204" lon="8.660033414194318"><ele>192.00000000000003</ele><time>2026-05-01T10:37:34.874Z</time></trkpt><trkpt lat="40.85396239780673" lon="8.660037878426975"><ele>190.0</ele><time>2026-05-01T10:37:35.874Z</time></trkpt><trkpt lat="40.853889886148" lon="8.660043899057973"><ele>188.0</ele><time>2026-05-01T10:37:36.874Z</time></trkpt><trkpt lat="40.85376904978068" lon="8.660065535412883"><ele>186.0</ele><time>2026-05-01T10:37:38.874Z</time></trkpt><trkpt lat="40.853700289755224" lon="8.660086660468453"><ele>184.0</ele><time>2026-05-01T10:37:39.874Z</time></trkpt><trkpt lat="40.85363888152302" lon="8.66012869839651"><ele>182.0</ele><time>2026-05-01T10:37:40.874Z</time></trkpt><trkpt lat="40.853543813388" lon="8.660230304608652"><ele>182.0</ele><time>2026-05-01T10:37:42.874Z</time></trkpt><trkpt lat="40.85349564795993" lon="8.660287023097464"><ele>182.0</ele><time>2026-05-01T10:37:43.874Z</time></trkpt><trkpt lat="40.8534064334244" lon="8.660378185963893"><ele>182.0</ele><time>2026-05-01T10:37:45.874Z</time></trkpt><trkpt lat="40.85335143428587" lon="8.660420667529445"><ele>182.0</ele><time>2026-05-01T10:37:46.874Z</time></trkpt><trkpt lat="40.853273812437166" lon="8.660436090039862"><ele>182.0</ele><time>2026-05-01T10:37:47.874Z</time></trkpt><trkpt lat="40.85319395631294" lon="8.660440141674703"><ele>182.0</ele><time>2026-05-01T10:37:48.874Z</time></trkpt><trkpt lat="40.85311548756969" lon="8.660443998000767"><ele>178.83333333333331</ele><time>2026-05-01T10:37:49.874Z</time></trkpt><trkpt lat="40.85303720068423" lon="8.660435740126513"><ele>175.66666666666666</ele><time>2026-05-01T10:37:50.874Z</time></trkpt><trkpt lat="40.8529600838251" lon="8.660417947788154"><ele>172.5</ele><time>2026-05-01T10:37:51.874Z</time></trkpt><trkpt lat="40.85288812914075" lon="8.660391320529897"><ele>169.33333333333334</ele><time>2026-05-01T10:37:52.874Z</time></trkpt><trkpt lat="40.852814773565285" lon="8.660360173212318"><ele>166.16666666666669</ele><time>2026-05-01T10:37:53.874Z</time></trkpt><trkpt lat="40.85274540771249" lon="8.660335136038784"><ele>163.0</ele><time>2026-05-01T10:37:54.874Z</time></trkpt><trkpt lat="40.85267629219481" lon="8.660319490995114"><ele>160.71428571428572</ele><time>2026-05-01T10:37:55.874Z</time></trkpt><trkpt lat="40.85260701223231" lon="8.660309182614396"><ele>158.42857142857142</ele><time>2026-05-01T10:37:56.874Z</time></trkpt><trkpt lat="40.852537560209306" lon="8.660309111254193"><ele>156.14285714285714</ele><time>2026-05-01T10:37:57.874Z</time></trkpt><trkpt lat="40.85247060226925" lon="8.660305953638924"><ele>153.85714285714286</ele><time>2026-05-01T10:37:58.874Z</time></trkpt><trkpt lat="40.85239243145179" lon="8.660316024765306"><ele>151.57142857142856</ele><time>2026-05-01T10:37:59.874Z</time></trkpt><trkpt lat="40.85231450350398" lon="8.660314757911737"><ele>149.28571428571428</ele><time>2026-05-01T10:38:00.874Z</time></trkpt><trkpt lat="40.852241529287554" lon="8.660306241230087"><ele>147.0</ele><time>2026-05-01T10:38:01.874Z</time></trkpt><trkpt lat="40.852168386860704" lon="8.660309103848565"><ele>147.0</ele><time>2026-05-01T10:38:02.874Z</time></trkpt><trkpt lat="40.85209896121438" lon="8.660328230738356"><ele>147.0</ele><time>2026-05-01T10:38:03.874Z</time></trkpt><trkpt lat="40.85203331275124" lon="8.660365517730845"><ele>147.0</ele><time>2026-05-01T10:38:04.874Z</time></trkpt><trkpt lat="40.85197208219425" lon="8.660417782784513"><ele>147.0</ele><time>2026-05-01T10:38:05.874Z</time></trkpt><trkpt lat="40.85190730751046" lon="8.660479322921086"><ele>147.0</ele><time>2026-05-01T10:38:06.874Z</time></trkpt><trkpt lat="40.85183672463972" lon="8.660539259641295"><ele>147.0</ele><time>2026-05-01T10:38:07.874Z</time></trkpt><trkpt lat="40.85176288080269" lon="8.660581694499903"><ele>144.5</ele><time>2026-05-01T10:38:08.874Z</time></trkpt><trkpt lat="40.851682631738214" lon="8.660619173460335"><ele>142.0</ele><time>2026-05-01T10:38:09.874Z</time></trkpt><trkpt lat="40.8515932516733" lon="8.660619386957338"><ele>139.5</ele><time>2026-05-01T10:38:10.874Z</time></trkpt><trkpt lat="40.85150764007092" lon="8.660637634013998"><ele>137.0</ele><time>2026-05-01T10:38:11.874Z</time></trkpt><trkpt lat="40.851422323936134" lon="8.660636477116523"><ele>134.5</ele><time>2026-05-01T10:38:12.874Z</time></trkpt><trkpt lat="40.85133823413088" lon="8.66062602372969"><ele>132.0</ele><time>2026-05-01T10:38:13.874Z</time></trkpt><trkpt lat="40.85125754298413" lon="8.660600939812733"><ele>132.0</ele><time>2026-05-01T10:38:14.874Z</time></trkpt><trkpt lat="40.85118273178839" lon="8.660575416427823"><ele>132.0</ele><time>2026-05-01T10:38:15.874Z</time></trkpt><trkpt lat="40.851109923967066" lon="8.660552100965857"><ele>132.0</ele><time>2026-05-01T10:38:16.874Z</time></trkpt><trkpt lat="40.85104228152946" lon="8.660535141842688"><ele>132.0</ele><time>2026-05-01T10:38:17.874Z</time></trkpt><trkpt lat="40.85097214913518" lon="8.660525506597153"><ele>132.0</ele><time>2026-05-01T10:38:18.874Z</time></trkpt><trkpt lat="40.85089129474518" lon="8.660542170459841"><ele>132.0</ele><time>2026-05-01T10:38:19.874Z</time></trkpt><trkpt lat="40.85081230502505" lon="8.660585497757024"><ele>130.5</ele><time>2026-05-01T10:38:20.874Z</time></trkpt><trkpt lat="40.85073928488478" lon="8.66064244566014"><ele>129.0</ele><time>2026-05-01T10:38:21.874Z</time></trkpt><trkpt lat="40.850678312399445" lon="8.66072400166329"><ele>127.5</ele><time>2026-05-01T10:38:22.874Z</time></trkpt><trkpt lat="40.85062759243776" lon="8.660805556323751"><ele>126.0</ele><time>2026-05-01T10:38:23.874Z</time></trkpt><trkpt lat="40.85057224621553" lon="8.660889208835634"><ele>124.5</ele><time>2026-05-01T10:38:24.874Z</time></trkpt><trkpt lat="40.85051639664252" lon="8.660956020104637"><ele>123.0</ele><time>2026-05-01T10:38:25.874Z</time></trkpt><trkpt lat="40.850455145718804" lon="8.66100085247374"><ele>123.0</ele><time>2026-05-01T10:38:26.874Z</time></trkpt><trkpt lat="40.85038301327167" lon="8.661041455947439"><ele>123.0</ele><time>2026-05-01T10:38:27.874Z</time></trkpt><trkpt lat="40.85030752801882" lon="8.661073330244884"><ele>123.0</ele><time>2026-05-01T10:38:28.874Z</time></trkpt><trkpt lat="40.85022730829248" lon="8.661093531813574"><ele>123.0</ele><time>2026-05-01T10:38:29.874Z</time></trkpt><trkpt lat="40.8501550943453" lon="8.661108638742755"><ele>123.0</ele><time>2026-05-01T10:38:30.874Z</time></trkpt><trkpt lat="40.8500445080882" lon="8.661087973907957"><ele>123.0</ele><time>2026-05-01T10:38:32.874Z</time></trkpt><trkpt lat="40.84994575713568" lon="8.661038070970838"><ele>121.60000000000001</ele><time>2026-05-01T10:38:34.874Z</time></trkpt><trkpt lat="40.84987251968112" lon="8.660995833789494"><ele>120.20000000000002</ele><time>2026-05-01T10:38:35.874Z</time></trkpt><trkpt lat="40.84977982951184" lon="8.66095360547211"><ele>118.8</ele><time>2026-05-01T10:38:36.874Z</time></trkpt><trkpt lat="40.84969581582466" lon="8.660863397377142"><ele>117.4</ele><time>2026-05-01T10:38:37.874Z</time></trkpt><trkpt lat="40.849618244571396" lon="8.660786934654745"><ele>116.0</ele><time>2026-05-01T10:38:38.874Z</time></trkpt><trkpt lat="40.84955053325142" lon="8.660710656227378"><ele>116.0</ele><time>2026-05-01T10:38:39.874Z</time></trkpt><trkpt lat="40.84947984815386" lon="8.660644699358981"><ele>116.0</ele><time>2026-05-01T10:38:40.874Z</time></trkpt><trkpt lat="40.84941764983698" lon="8.660598056809098"><ele>116.0</ele><time>2026-05-01T10:38:41.874Z</time></trkpt><trkpt lat="40.8493566327178" lon="8.660571040785454"><ele>116.0</ele><time>2026-05-01T10:38:42.874Z</time></trkpt><trkpt lat="40.84924070206815" lon="8.660534854465341"><ele>116.0</ele><time>2026-05-01T10:38:44.874Z</time></trkpt><trkpt lat="40.84913801821669" lon="8.660483293912264"><ele>113.6</ele><time>2026-05-01T10:38:46.874Z</time></trkpt><trkpt lat="40.84905509428813" lon="8.660366514270274"><ele>111.19999999999999</ele><time>2026-05-01T10:38:48.874Z</time></trkpt><trkpt lat="40.84902557072755" lon="8.660288145616015"><ele>108.80000000000001</ele><time>2026-05-01T10:38:49.874Z</time></trkpt><trkpt lat="40.84899650678006" lon="8.660164801229758"><ele>106.4</ele><time>2026-05-01T10:38:51.874Z</time></trkpt><trkpt lat="40.84901611178944" lon="8.660070262111"><ele>104.0</ele><time>2026-05-01T10:38:53.874Z</time></trkpt><trkpt lat="40.84906784361699" lon="8.659951328005672"><ele>103.66666666666666</ele><time>2026-05-01T10:38:55.874Z</time></trkpt><trkpt lat="40.8490928664774" lon="8.659828179297874"><ele>103.33333333333333</ele><time>2026-05-01T10:38:57.874Z</time></trkpt><trkpt lat="40.84908539525213" lon="8.65972145536849"><ele>103.0</ele><time>2026-05-01T10:38:59.874Z</time></trkpt><trkpt lat="40.84902973676429" lon="8.659640605255342"><ele>102.66666666666666</ele><time>2026-05-01T10:39:01.874Z</time></trkpt><trkpt lat="40.84896253045279" lon="8.659619021213794"><ele>102.33333333333333</ele><time>2026-05-01T10:39:03.874Z</time></trkpt><trkpt lat="40.848884449892296" lon="8.659629233974577"><ele>102.0</ele><time>2026-05-01T10:39:05.874Z</time></trkpt><trkpt lat="40.84874166989357" lon="8.659658312373278"><ele>102.0</ele><time>2026-05-01T10:39:07.874Z</time></trkpt><trkpt lat="40.84865522227599" lon="8.659686324087133"><ele>102.0</ele><time>2026-05-01T10:39:08.874Z</time></trkpt><trkpt lat="40.84858156830759" lon="8.65970762437567"><ele>102.0</ele><time>2026-05-01T10:39:09.872Z</time></trkpt><trkpt lat="40.84847757526134" lon="8.659721268295332"><ele>102.0</ele><time>2026-05-01T10:39:11.872Z</time></trkpt><trkpt lat="40.848400993658224" lon="8.659663434099027"><ele>102.0</ele><time>2026-05-01T10:39:13.873Z</time></trkpt><trkpt lat="40.848358041174556" lon="8.659548761727152"><ele>102.6</ele><time>2026-05-01T10:39:15.873Z</time></trkpt><trkpt lat="40.848324709334634" lon="8.659378645946546"><ele>103.19999999999999</ele><time>2026-05-01T10:39:17.872Z</time></trkpt><trkpt lat="40.84831702076084" lon="8.659273250136868"><ele>103.8</ele><time>2026-05-01T10:39:18.872Z</time></trkpt><trkpt lat="40.84830137919807" lon="8.659126769040837"><ele>104.4</ele><time>2026-05-01T10:39:20.873Z</time></trkpt><trkpt lat="40.84824988666718" lon="8.65898082777918"><ele>105.0</ele><time>2026-05-01T10:39:22.872Z</time></trkpt><trkpt lat="40.848160439009845" lon="8.658900897747865"><ele>105.0</ele><time>2026-05-01T10:39:23.872Z</time></trkpt><trkpt lat="40.8480759922297" lon="8.658852079785383"><ele>105.0</ele><time>2026-05-01T10:39:24.872Z</time></trkpt><trkpt lat="40.84801162603365" lon="8.658805980593039"><ele>105.0</ele><time>2026-05-01T10:39:25.872Z</time></trkpt><trkpt lat="40.84795259134588" lon="8.658760707672977"><ele>105.0</ele><time>2026-05-01T10:39:26.872Z</time></trkpt><trkpt lat="40.847856806705714" lon="8.65868895176901"><ele>105.0</ele><time>2026-05-01T10:39:28.872Z</time></trkpt><trkpt lat="40.84781422320019" lon="8.658589167822756"><ele>105.0</ele><time>2026-05-01T10:39:30.872Z</time></trkpt><trkpt lat="40.847849296829615" lon="8.658471025442122"><ele>102.8</ele><time>2026-05-01T10:39:32.872Z</time></trkpt><trkpt lat="40.847823552245586" lon="8.658356139802418"><ele>100.6</ele><time>2026-05-01T10:39:34.872Z</time></trkpt><trkpt lat="40.847795354763605" lon="8.658226886492372"><ele>98.4</ele><time>2026-05-01T10:39:36.872Z</time></trkpt><trkpt lat="40.84773763771319" lon="8.658101771126251"><ele>96.2</ele><time>2026-05-01T10:39:38.872Z</time></trkpt><trkpt lat="40.847682363305466" lon="8.657996395587713"><ele>94.0</ele><time>2026-05-01T10:39:40.872Z</time></trkpt><trkpt lat="40.84762269369662" lon="8.657878785154715"><ele>94.0</ele><time>2026-05-01T10:39:42.872Z</time></trkpt><trkpt lat="40.847576836099215" lon="8.657739642485373"><ele>94.0</ele><time>2026-05-01T10:39:44.872Z</time></trkpt><trkpt lat="40.84754630781276" lon="8.657600944441276"><ele>94.0</ele><time>2026-05-01T10:39:46.872Z</time></trkpt><trkpt lat="40.847510153803334" lon="8.657457285324902"><ele>94.0</ele><time>2026-05-01T10:39:48.872Z</time></trkpt><trkpt lat="40.84746602659781" lon="8.657317742999927"><ele>94.0</ele><time>2026-05-01T10:39:50.872Z</time></trkpt><trkpt lat="40.84743749698359" lon="8.657242229386256"><ele>94.0</ele><time>2026-05-01T10:39:51.872Z</time></trkpt><trkpt lat="40.847368225544145" lon="8.657114763577214"><ele>94.0</ele><time>2026-05-01T10:39:53.872Z</time></trkpt><trkpt lat="40.84732429580461" lon="8.657052720550759"><ele>94.0</ele><time>2026-05-01T10:39:54.872Z</time></trkpt><trkpt lat="40.84727543014364" lon="8.656993507101934"><ele>94.0</ele><time>2026-05-01T10:39:55.872Z</time></trkpt><trkpt lat="40.8472191466361" lon="8.656937846548548"><ele>94.0</ele><time>2026-05-01T10:39:56.872Z</time></trkpt><trkpt lat="40.84716394471125" lon="8.656874034784954"><ele>93.83333333333333</ele><time>2026-05-01T10:39:57.872Z</time></trkpt><trkpt lat="40.847103867392825" lon="8.656801185006877"><ele>93.66666666666666</ele><time>2026-05-01T10:39:58.872Z</time></trkpt><trkpt lat="40.847041891293735" lon="8.656721892298755"><ele>93.5</ele><time>2026-05-01T10:39:59.872Z</time></trkpt><trkpt lat="40.8469930443011" lon="8.656629076329544"><ele>93.33333333333333</ele><time>2026-05-01T10:40:00.873Z</time></trkpt><trkpt lat="40.84693975230386" lon="8.656562349569969"><ele>93.16666666666667</ele><time>2026-05-01T10:40:01.873Z</time></trkpt><trkpt lat="40.84687496084772" lon="8.656487157857047"><ele>93.0</ele><time>2026-05-01T10:40:02.873Z</time></trkpt><trkpt lat="40.84680341907943" lon="8.656414139262706"><ele>91.83333333333333</ele><time>2026-05-01T10:40:03.873Z</time></trkpt><trkpt lat="40.84672623700788" lon="8.656353641418171"><ele>90.66666666666667</ele><time>2026-05-01T10:40:04.873Z</time></trkpt><trkpt lat="40.846645168314616" lon="8.65629010949535"><ele>89.5</ele><time>2026-05-01T10:40:05.873Z</time></trkpt><trkpt lat="40.846572453226734" lon="8.656225621767003"><ele>88.33333333333334</ele><time>2026-05-01T10:40:06.873Z</time></trkpt><trkpt lat="40.846523667881726" lon="8.656164653468789"><ele>87.16666666666667</ele><time>2026-05-01T10:40:07.873Z</time></trkpt><trkpt lat="40.84647724768641" lon="8.65610591536829"><ele>86.0</ele><time>2026-05-01T10:40:08.873Z</time></trkpt><trkpt lat="40.846420461639774" lon="8.65602309688901"><ele>86.0</ele><time>2026-05-01T10:40:09.873Z</time></trkpt><trkpt lat="40.846362042221216" lon="8.655921347117946"><ele>86.0</ele><time>2026-05-01T10:40:10.873Z</time></trkpt><trkpt lat="40.84631308027868" lon="8.655824250688074"><ele>86.0</ele><time>2026-05-01T10:40:11.873Z</time></trkpt><trkpt lat="40.84626470727267" lon="8.655720900943031"><ele>86.0</ele><time>2026-05-01T10:40:12.873Z</time></trkpt><trkpt lat="40.84623666428483" lon="8.655614730076929"><ele>86.0</ele><time>2026-05-01T10:40:13.873Z</time></trkpt><trkpt lat="40.84620718933164" lon="8.65549541522298"><ele>86.0</ele><time>2026-05-01T10:40:14.873Z</time></trkpt><trkpt lat="40.84618232720586" lon="8.655376968004754"><ele>86.0</ele><time>2026-05-01T10:40:15.873Z</time></trkpt><trkpt lat="40.84615933231298" lon="8.65526677500715"><ele>86.0</ele><time>2026-05-01T10:40:16.873Z</time></trkpt><trkpt lat="40.84613276798567" lon="8.65516315335747"><ele>86.0</ele><time>2026-05-01T10:40:17.873Z</time></trkpt><trkpt lat="40.84610548782868" lon="8.655065942969017"><ele>86.0</ele><time>2026-05-01T10:40:18.873Z</time></trkpt><trkpt lat="40.84605778304467" lon="8.654971921899444"><ele>86.0</ele><time>2026-05-01T10:40:19.873Z</time></trkpt><trkpt lat="40.846009263165925" lon="8.654876956397647"><ele>85.14285714285715</ele><time>2026-05-01T10:40:20.873Z</time></trkpt><trkpt lat="40.84597381764618" lon="8.654795040297643"><ele>84.28571428571429</ele><time>2026-05-01T10:40:21.873Z</time></trkpt><trkpt lat="40.84594665374396" lon="8.654702923792813"><ele>83.42857142857143</ele><time>2026-05-01T10:40:22.873Z</time></trkpt><trkpt lat="40.845933428649296" lon="8.654604882680566"><ele>82.57142857142858</ele><time>2026-05-01T10:40:23.873Z</time></trkpt><trkpt lat="40.84592674421517" lon="8.654505694679804"><ele>81.71428571428572</ele><time>2026-05-01T10:40:24.873Z</time></trkpt><trkpt lat="40.845915011377855" lon="8.654421502791854"><ele>80.85714285714286</ele><time>2026-05-01T10:40:25.873Z</time></trkpt><trkpt lat="40.84588875292305" lon="8.654343127480923"><ele>80.0</ele><time>2026-05-01T10:40:26.873Z</time></trkpt><trkpt lat="40.84580202823745" lon="8.65423637714504"><ele>79.66666666666667</ele><time>2026-05-01T10:40:28.873Z</time></trkpt><trkpt lat="40.84575123914593" lon="8.654176645154635"><ele>79.33333333333334</ele><time>2026-05-01T10:40:29.873Z</time></trkpt><trkpt lat="40.84569726541783" lon="8.654089484170182"><ele>79.0</ele><time>2026-05-01T10:40:30.873Z</time></trkpt><trkpt lat="40.84565350589024" lon="8.653998379529147"><ele>78.66666666666667</ele><time>2026-05-01T10:40:31.873Z</time></trkpt><trkpt lat="40.845604467329466" lon="8.653887910212523"><ele>78.33333333333333</ele><time>2026-05-01T10:40:32.873Z</time></trkpt><trkpt lat="40.84556026455469" lon="8.653774963784512"><ele>78.0</ele><time>2026-05-01T10:40:33.873Z</time></trkpt><trkpt lat="40.845512177345185" lon="8.6536621158549"><ele>79.16666666666667</ele><time>2026-05-01T10:40:34.873Z</time></trkpt><trkpt lat="40.84546751432723" lon="8.653548151549412"><ele>80.33333333333333</ele><time>2026-05-01T10:40:35.873Z</time></trkpt><trkpt lat="40.845429907699874" lon="8.653442148605297"><ele>81.5</ele><time>2026-05-01T10:40:36.873Z</time></trkpt><trkpt lat="40.84539275241895" lon="8.653345822413787"><ele>82.66666666666666</ele><time>2026-05-01T10:40:37.873Z</time></trkpt><trkpt lat="40.84535336685614" lon="8.65325394252961"><ele>83.83333333333333</ele><time>2026-05-01T10:40:38.873Z</time></trkpt><trkpt lat="40.84531190293865" lon="8.653155286240633"><ele>85.0</ele><time>2026-05-01T10:40:39.873Z</time></trkpt><trkpt lat="40.845284707554256" lon="8.65304471507638"><ele>85.0</ele><time>2026-05-01T10:40:40.873Z</time></trkpt><trkpt lat="40.84526682786876" lon="8.652941261154957"><ele>85.0</ele><time>2026-05-01T10:40:41.873Z</time></trkpt><trkpt lat="40.84524492326542" lon="8.652837241867703"><ele>85.0</ele><time>2026-05-01T10:40:42.873Z</time></trkpt><trkpt lat="40.84520696655039" lon="8.652692753690072"><ele>85.0</ele><time>2026-05-01T10:40:43.873Z</time></trkpt><trkpt lat="40.84515215347629" lon="8.652543539108143"><ele>85.0</ele><time>2026-05-01T10:40:44.873Z</time></trkpt><trkpt lat="40.84509444870956" lon="8.652422535235047"><ele>82.8</ele><time>2026-05-01T10:40:45.873Z</time></trkpt><trkpt lat="40.84502637256548" lon="8.65231221422486"><ele>80.6</ele><time>2026-05-01T10:40:46.873Z</time></trkpt><trkpt lat="40.84496388662875" lon="8.652217982794701"><ele>78.4</ele><time>2026-05-01T10:40:47.873Z</time></trkpt><trkpt lat="40.84492020370401" lon="8.652151528744419"><ele>76.2</ele><time>2026-05-01T10:40:48.873Z</time></trkpt><trkpt lat="40.84484836829916" lon="8.652081038092506"><ele>74.0</ele><time>2026-05-01T10:40:50.873Z</time></trkpt><trkpt lat="40.84477065055424" lon="8.651980323421407"><ele>74.0</ele><time>2026-05-01T10:40:52.873Z</time></trkpt><trkpt lat="40.84469192026598" lon="8.65196653857268"><ele>74.0</ele><time>2026-05-01T10:40:54.873Z</time></trkpt><trkpt lat="40.84475521398513" lon="8.65182292058807"><ele>74.0</ele><time>2026-05-01T10:41:02.873Z</time></trkpt><trkpt lat="40.8447819490908" lon="8.651740776606605"><ele>74.0</ele><time>2026-05-01T10:41:03.873Z</time></trkpt><trkpt lat="40.84480059046487" lon="8.651640106311886"><ele>74.0</ele><time>2026-05-01T10:41:04.873Z</time></trkpt><trkpt lat="40.84483260182776" lon="8.651546881596367"><ele>74.0</ele><time>2026-05-01T10:41:05.873Z</time></trkpt><trkpt lat="40.84483795886258" lon="8.651410318432228"><ele>74.0</ele><time>2026-05-01T10:41:06.873Z</time></trkpt><trkpt lat="40.84491427299626" lon="8.651441251071391"><ele>74.0</ele><time>2026-05-01T10:41:07.873Z</time></trkpt><trkpt lat="40.8445885693515" lon="8.650440426276822"><ele>74.28571428571429</ele><time>2026-05-01T10:41:08.873Z</time></trkpt><trkpt lat="40.844595797932676" lon="8.650349746414244"><ele>74.57142857142857</ele><time>2026-05-01T10:41:09.873Z</time></trkpt><trkpt lat="40.84461877250117" lon="8.650205940416965"><ele>74.85714285714286</ele><time>2026-05-01T10:41:11.873Z</time></trkpt><trkpt lat="40.84460358593967" lon="8.65011347946233"><ele>75.14285714285714</ele><time>2026-05-01T10:41:12.873Z</time></trkpt><trkpt lat="40.844589861865245" lon="8.650031944487482"><ele>75.42857142857143</ele><time>2026-05-01T10:41:13.873Z</time></trkpt><trkpt lat="40.84458284539672" lon="8.64994689832917"><ele>75.71428571428571</ele><time>2026-05-01T10:41:14.873Z</time></trkpt><trkpt lat="40.84458354913245" lon="8.649860097923572"><ele>76.0</ele><time>2026-05-01T10:41:15.871Z</time></trkpt><trkpt lat="40.84458157820777" lon="8.64977493888703"><ele>75.33333333333333</ele><time>2026-05-01T10:41:16.87Z</time></trkpt><trkpt lat="40.84458724385" lon="8.649674572584537"><ele>74.66666666666666</ele><time>2026-05-01T10:41:17.87Z</time></trkpt><trkpt lat="40.84458499205049" lon="8.649574161754664"><ele>74.0</ele><time>2026-05-01T10:41:18.87Z</time></trkpt><trkpt lat="40.84457448114126" lon="8.64946752666088"><ele>73.33333333333333</ele><time>2026-05-01T10:41:19.87Z</time></trkpt><trkpt lat="40.84454960102991" lon="8.649361282872686"><ele>72.66666666666667</ele><time>2026-05-01T10:41:20.87Z</time></trkpt><trkpt lat="40.84452233876153" lon="8.649266579620582"><ele>72.0</ele><time>2026-05-01T10:41:21.871Z</time></trkpt><trkpt lat="40.84449633922568" lon="8.649181948929503"><ele>71.5</ele><time>2026-05-01T10:41:22.87Z</time></trkpt><trkpt lat="40.84446549201294" lon="8.649106721957848"><ele>71.0</ele><time>2026-05-01T10:41:23.87Z</time></trkpt><trkpt lat="40.84442269754519" lon="8.64904194433791"><ele>70.5</ele><time>2026-05-01T10:41:24.87Z</time></trkpt><trkpt lat="40.84437577132702" lon="8.648966815698696"><ele>70.0</ele><time>2026-05-01T10:41:25.87Z</time></trkpt><trkpt lat="40.8443300016102" lon="8.648886030952973"><ele>69.5</ele><time>2026-05-01T10:41:26.87Z</time></trkpt><trkpt lat="40.844287489367915" lon="8.64879087818375"><ele>69.0</ele><time>2026-05-01T10:41:27.871Z</time></trkpt><trkpt lat="40.84423828960823" lon="8.648669536358208"><ele>67.0</ele><time>2026-05-01T10:41:28.871Z</time></trkpt><trkpt lat="40.844194566968646" lon="8.648567385733424"><ele>65.0</ele><time>2026-05-01T10:41:29.871Z</time></trkpt><trkpt lat="40.8441416975192" lon="8.648471636470417"><ele>63.0</ele><time>2026-05-01T10:41:30.871Z</time></trkpt><trkpt lat="40.84410273487593" lon="8.648381922399578"><ele>61.0</ele><time>2026-05-01T10:41:31.871Z</time></trkpt><trkpt lat="40.844062038733895" lon="8.648308590373304"><ele>59.0</ele><time>2026-05-01T10:41:32.871Z</time></trkpt><trkpt lat="40.84396711321022" lon="8.648205338187548"><ele>57.0</ele><time>2026-05-01T10:41:34.871Z</time></trkpt><trkpt lat="40.843909358238264" lon="8.648167880698617"><ele>57.0</ele><time>2026-05-01T10:41:35.871Z</time></trkpt><trkpt lat="40.8438439468924" lon="8.64813590546868"><ele>57.0</ele><time>2026-05-01T10:41:36.871Z</time></trkpt><trkpt lat="40.843754495726024" lon="8.648108484781723"><ele>57.0</ele><time>2026-05-01T10:41:37.871Z</time></trkpt><trkpt lat="40.8436781697121" lon="8.648084453651808"><ele>57.0</ele><time>2026-05-01T10:41:38.871Z</time></trkpt><trkpt lat="40.843610915933" lon="8.648073005128486"><ele>57.0</ele><time>2026-05-01T10:41:39.871Z</time></trkpt><trkpt lat="40.84351200690172" lon="8.64804835439222"><ele>57.0</ele><time>2026-05-01T10:41:41.871Z</time></trkpt><trkpt lat="40.84344042181389" lon="8.648054023816037"><ele>57.333333333333336</ele><time>2026-05-01T10:41:42.871Z</time></trkpt><trkpt lat="40.843367040987" lon="8.64805447863866"><ele>57.66666666666667</ele><time>2026-05-01T10:41:43.871Z</time></trkpt><trkpt lat="40.843278589793606" lon="8.64804963846522"><ele>58.0</ele><time>2026-05-01T10:41:44.871Z</time></trkpt><trkpt lat="40.84319554716204" lon="8.64804234434634"><ele>58.333333333333336</ele><time>2026-05-01T10:41:45.871Z</time></trkpt><trkpt lat="40.843119142313974" lon="8.648039157755878"><ele>58.66666666666667</ele><time>2026-05-01T10:41:46.871Z</time></trkpt><trkpt lat="40.843052298784485" lon="8.648034520303673"><ele>59.0</ele><time>2026-05-01T10:41:47.871Z</time></trkpt><trkpt lat="40.84298556353253" lon="8.648048431794289"><ele>59.00000000000001</ele><time>2026-05-01T10:41:48.871Z</time></trkpt><trkpt lat="40.842922229740836" lon="8.648045398266461"><ele>59.0</ele><time>2026-05-01T10:41:49.871Z</time></trkpt><trkpt lat="40.84283334308334" lon="8.648022499033145"><ele>59.0</ele><time>2026-05-01T10:41:51.871Z</time></trkpt><trkpt lat="40.842727774625935" lon="8.648018312133123"><ele>59.0</ele><time>2026-05-01T10:42:16.871Z</time></trkpt><trkpt lat="40.84265188460677" lon="8.64796196881763"><ele>59.00000000000001</ele><time>2026-05-01T10:42:18.871Z</time></trkpt><trkpt lat="40.84262082145805" lon="8.647847682406347"><ele>59.0</ele><time>2026-05-01T10:42:20.871Z</time></trkpt><trkpt lat="40.84260202179238" lon="8.647698295943107"><ele>58.833333333333336</ele><time>2026-05-01T10:42:22.871Z</time></trkpt><trkpt lat="40.84258732230125" lon="8.64759959260934"><ele>58.66666666666667</ele><time>2026-05-01T10:42:23.871Z</time></trkpt><trkpt lat="40.84257258576296" lon="8.647514033416085"><ele>58.5</ele><time>2026-05-01T10:42:24.871Z</time></trkpt><trkpt lat="40.84254565898595" lon="8.647420657674953"><ele>58.33333333333333</ele><time>2026-05-01T10:42:25.871Z</time></trkpt><trkpt lat="40.842506693762914" lon="8.647312059821145"><ele>58.166666666666664</ele><time>2026-05-01T10:42:26.871Z</time></trkpt><trkpt lat="40.842471082673235" lon="8.64720838181155"><ele>58.0</ele><time>2026-05-01T10:42:27.871Z</time></trkpt><trkpt lat="40.842430183083685" lon="8.647109243893311"><ele>57.99999999999999</ele><time>2026-05-01T10:42:28.871Z</time></trkpt><trkpt lat="40.84239458535545" lon="8.647028902345989"><ele>58.0</ele><time>2026-05-01T10:42:29.871Z</time></trkpt><trkpt lat="40.84230621994245" lon="8.64695156564717"><ele>58.0</ele><time>2026-05-01T10:42:31.871Z</time></trkpt><trkpt lat="40.84224075920395" lon="8.646942075232438"><ele>58.0</ele><time>2026-05-01T10:42:32.871Z</time></trkpt><trkpt lat="40.842153262003386" lon="8.64694345195269"><ele>57.99999999999999</ele><time>2026-05-01T10:42:33.871Z</time></trkpt><trkpt lat="40.842078932290796" lon="8.646953654363488"><ele>58.0</ele><time>2026-05-01T10:42:34.871Z</time></trkpt><trkpt lat="40.842005607451476" lon="8.64695634856769"><ele>59.666666666666664</ele><time>2026-05-01T10:42:35.871Z</time></trkpt><trkpt lat="40.84193933123216" lon="8.646946976276665"><ele>61.33333333333333</ele><time>2026-05-01T10:42:36.871Z</time></trkpt><trkpt lat="40.84183809937015" lon="8.646852863637056"><ele>63.0</ele><time>2026-05-01T10:42:38.871Z</time></trkpt><trkpt lat="40.84179724236114" lon="8.646784965654613"><ele>64.66666666666667</ele><time>2026-05-01T10:42:39.871Z</time></trkpt><trkpt lat="40.84175574383171" lon="8.646701272281026"><ele>66.33333333333334</ele><time>2026-05-01T10:42:40.871Z</time></trkpt><trkpt lat="40.84171398217763" lon="8.646602269684223"><ele>68.0</ele><time>2026-05-01T10:42:41.871Z</time></trkpt><trkpt lat="40.84167292516636" lon="8.646504226984062"><ele>69.2</ele><time>2026-05-01T10:42:42.871Z</time></trkpt><trkpt lat="40.84162718985615" lon="8.646401102684045"><ele>70.4</ele><time>2026-05-01T10:42:43.871Z</time></trkpt><trkpt lat="40.84157451536754" lon="8.646295201077876"><ele>71.60000000000001</ele><time>2026-05-01T10:42:44.871Z</time></trkpt><trkpt lat="40.84151878061915" lon="8.646188360167598"><ele>72.8</ele><time>2026-05-01T10:42:45.871Z</time></trkpt><trkpt lat="40.84146221448457" lon="8.646087693780233"><ele>74.0</ele><time>2026-05-01T10:42:46.871Z</time></trkpt><trkpt lat="40.8414287098996" lon="8.64599579372477"><ele>75.5</ele><time>2026-05-01T10:42:47.871Z</time></trkpt><trkpt lat="40.84146373433474" lon="8.645840842239586"><ele>77.0</ele><time>2026-05-01T10:42:49.871Z</time></trkpt><trkpt lat="40.84151837277464" lon="8.645784420536417"><ele>78.5</ele><time>2026-05-01T10:42:50.871Z</time></trkpt><trkpt lat="40.84158787636808" lon="8.645735699689359"><ele>80.0</ele><time>2026-05-01T10:42:51.871Z</time></trkpt><trkpt lat="40.84166265657788" lon="8.645710840877026"><ele>81.5</ele><time>2026-05-01T10:42:52.871Z</time></trkpt><trkpt lat="40.84173417638772" lon="8.645720369810435"><ele>83.0</ele><time>2026-05-01T10:42:53.871Z</time></trkpt><trkpt lat="40.84180368769277" lon="8.645760293312792"><ele>83.33333333333334</ele><time>2026-05-01T10:42:54.871Z</time></trkpt><trkpt lat="40.84186952087899" lon="8.645826656626104"><ele>83.66666666666667</ele><time>2026-05-01T10:42:55.871Z</time></trkpt><trkpt lat="40.84193852636768" lon="8.64590978353274"><ele>84.0</ele><time>2026-05-01T10:42:56.871Z</time></trkpt><trkpt lat="40.84200601081229" lon="8.645987717867536"><ele>84.33333333333333</ele><time>2026-05-01T10:42:57.871Z</time></trkpt><trkpt lat="40.84206059860889" lon="8.646037072151826"><ele>84.66666666666666</ele><time>2026-05-01T10:42:58.871Z</time></trkpt><trkpt lat="40.84213017346545" lon="8.645983573249133"><ele>85.0</ele><time>2026-05-01T10:43:01.871Z</time></trkpt><trkpt lat="40.84210280765801" lon="8.645894007813041"><ele>85.0</ele><time>2026-05-01T10:43:03.871Z</time></trkpt><trkpt lat="40.84206033445375" lon="8.645817384345683"><ele>85.0</ele><time>2026-05-01T10:43:04.871Z</time></trkpt><trkpt lat="40.84199510992968" lon="8.645712708989496"><ele>85.0</ele><time>2026-05-01T10:43:05.872Z</time></trkpt><trkpt lat="40.84195909026379" lon="8.645614578275495"><ele>85.0</ele><time>2026-05-01T10:43:06.872Z</time></trkpt><trkpt lat="40.841953071801576" lon="8.645506833249346"><ele>85.0</ele><time>2026-05-01T10:43:07.872Z</time></trkpt><trkpt lat="40.84197332087319" lon="8.645398033532997"><ele>85.0</ele><time>2026-05-01T10:43:08.872Z</time></trkpt><trkpt lat="40.84197954236211" lon="8.645288409784555"><ele>86.0</ele><time>2026-05-01T10:43:09.872Z</time></trkpt><trkpt lat="40.84193913034511" lon="8.645154807473979"><ele>87.0</ele><time>2026-05-01T10:43:11.872Z</time></trkpt><trkpt lat="40.84188884284549" lon="8.645101178659022"><ele>88.0</ele><time>2026-05-01T10:43:12.872Z</time></trkpt><trkpt lat="40.84182375170638" lon="8.64504340886639"><ele>89.0</ele><time>2026-05-01T10:43:13.872Z</time></trkpt><trkpt lat="40.84175994253134" lon="8.644951936653705"><ele>90.0</ele><time>2026-05-01T10:43:14.872Z</time></trkpt><trkpt lat="40.84168530202957" lon="8.644871212118929"><ele>91.0</ele><time>2026-05-01T10:43:15.872Z</time></trkpt><trkpt lat="40.84160819817724" lon="8.644783251382886"><ele>91.0</ele><time>2026-05-01T10:43:16.872Z</time></trkpt><trkpt lat="40.84153464797597" lon="8.644693289598656"><ele>91.0</ele><time>2026-05-01T10:43:17.872Z</time></trkpt><trkpt lat="40.84146385726982" lon="8.644598828838948"><ele>91.0</ele><time>2026-05-01T10:43:18.872Z</time></trkpt><trkpt lat="40.841391375223914" lon="8.644500405769497"><ele>91.0</ele><time>2026-05-01T10:43:19.872Z</time></trkpt><trkpt lat="40.84131988815749" lon="8.644408478911007"><ele>91.0</ele><time>2026-05-01T10:43:20.872Z</time></trkpt><trkpt lat="40.84124653660716" lon="8.644301159476916"><ele>92.8</ele><time>2026-05-01T10:43:21.869Z</time></trkpt><trkpt lat="40.84117686445145" lon="8.644185043438924"><ele>94.6</ele><time>2026-05-01T10:43:22.868Z</time></trkpt><trkpt lat="40.841110047734745" lon="8.644069123674592"><ele>96.4</ele><time>2026-05-01T10:43:23.868Z</time></trkpt><trkpt lat="40.84103772183732" lon="8.643956007117984"><ele>98.2</ele><time>2026-05-01T10:43:24.869Z</time></trkpt><trkpt lat="40.84098519458867" lon="8.643836397801513"><ele>100.0</ele><time>2026-05-01T10:43:25.869Z</time></trkpt><trkpt lat="40.84091155180106" lon="8.643726692443224"><ele>101.4</ele><time>2026-05-01T10:43:26.869Z</time></trkpt><trkpt lat="40.84083518755881" lon="8.643620268793013"><ele>102.8</ele><time>2026-05-01T10:43:27.869Z</time></trkpt><trkpt lat="40.84075985647958" lon="8.643514117206752"><ele>104.19999999999999</ele><time>2026-05-01T10:43:28.868Z</time></trkpt><trkpt lat="40.840691427937465" lon="8.64341646159358"><ele>105.6</ele><time>2026-05-01T10:43:29.868Z</time></trkpt><trkpt lat="40.840619267235944" lon="8.643314826102518"><ele>107.0</ele><time>2026-05-01T10:43:30.868Z</time></trkpt><trkpt lat="40.840547447576625" lon="8.643217093021805"><ele>107.0</ele><time>2026-05-01T10:43:31.869Z</time></trkpt><trkpt lat="40.84047289048014" lon="8.643124673948735"><ele>106.99999999999999</ele><time>2026-05-01T10:43:32.869Z</time></trkpt><trkpt lat="40.84039432707818" lon="8.643028847560322"><ele>106.99999999999999</ele><time>2026-05-01T10:43:33.869Z</time></trkpt><trkpt lat="40.84030873077971" lon="8.642938603731892"><ele>107.0</ele><time>2026-05-01T10:43:34.869Z</time></trkpt><trkpt lat="40.840224718084265" lon="8.64284968355808"><ele>107.0</ele><time>2026-05-01T10:43:35.869Z</time></trkpt><trkpt lat="40.84014577255997" lon="8.642753179705489"><ele>108.19999999999999</ele><time>2026-05-01T10:43:36.869Z</time></trkpt><trkpt lat="40.840058752504234" lon="8.64266016297514"><ele>109.39999999999999</ele><time>2026-05-01T10:43:37.869Z</time></trkpt><trkpt lat="40.83997620471619" lon="8.642582738124254"><ele>110.60000000000001</ele><time>2026-05-01T10:43:38.869Z</time></trkpt><trkpt lat="40.83989092058487" lon="8.64249770037162"><ele>111.80000000000001</ele><time>2026-05-01T10:43:39.869Z</time></trkpt><trkpt lat="40.8398062041017" lon="8.642409903852938"><ele>113.0</ele><time>2026-05-01T10:43:40.869Z</time></trkpt><trkpt lat="40.839732254783065" lon="8.642312277115915"><ele>113.0</ele><time>2026-05-01T10:43:41.869Z</time></trkpt><trkpt lat="40.839656342990985" lon="8.642236600343155"><ele>113.00000000000001</ele><time>2026-05-01T10:43:42.869Z</time></trkpt><trkpt lat="40.83957756055646" lon="8.642144786707604"><ele>113.00000000000001</ele><time>2026-05-01T10:43:43.869Z</time></trkpt><trkpt lat="40.83949257062985" lon="8.642058014471388"><ele>113.0</ele><time>2026-05-01T10:43:44.869Z</time></trkpt><trkpt lat="40.83941585122612" lon="8.641965932268162"><ele>113.0</ele><time>2026-05-01T10:43:45.869Z</time></trkpt><trkpt lat="40.83933542770579" lon="8.641883068069715"><ele>114.0</ele><time>2026-05-01T10:43:46.869Z</time></trkpt><trkpt lat="40.83924515117287" lon="8.641806635105738"><ele>115.00000000000001</ele><time>2026-05-01T10:43:47.869Z</time></trkpt><trkpt lat="40.83915451475511" lon="8.641727641133071"><ele>116.00000000000001</ele><time>2026-05-01T10:43:48.869Z</time></trkpt><trkpt lat="40.839062050490384" lon="8.64163993024584"><ele>117.0</ele><time>2026-05-01T10:43:49.869Z</time></trkpt><trkpt lat="40.83897587070597" lon="8.641555234836659"><ele>118.0</ele><time>2026-05-01T10:43:50.869Z</time></trkpt><trkpt lat="40.8388920701394" lon="8.641470478875098"><ele>118.0</ele><time>2026-05-01T10:43:51.869Z</time></trkpt><trkpt lat="40.83881230298119" lon="8.641388419635941"><ele>118.00000000000001</ele><time>2026-05-01T10:43:52.869Z</time></trkpt><trkpt lat="40.83873044785813" lon="8.641304501262496"><ele>118.00000000000001</ele><time>2026-05-01T10:43:53.869Z</time></trkpt><trkpt lat="40.83865377040868" lon="8.641223002436174"><ele>118.0</ele><time>2026-05-01T10:43:54.869Z</time></trkpt><trkpt lat="40.83857798408203" lon="8.641138462195409"><ele>118.0</ele><time>2026-05-01T10:43:55.869Z</time></trkpt><trkpt lat="40.8384985713972" lon="8.64104692842175"><ele>118.60000000000001</ele><time>2026-05-01T10:43:56.869Z</time></trkpt><trkpt lat="40.83842277906515" lon="8.640949474228957"><ele>119.20000000000002</ele><time>2026-05-01T10:43:57.869Z</time></trkpt><trkpt lat="40.8383608184925" lon="8.64084037574042"><ele>119.8</ele><time>2026-05-01T10:43:58.869Z</time></trkpt><trkpt lat="40.83830626186965" lon="8.640722524648915"><ele>120.4</ele><time>2026-05-01T10:43:59.869Z</time></trkpt><trkpt lat="40.838246884633406" lon="8.640594571935955"><ele>121.0</ele><time>2026-05-01T10:44:00.869Z</time></trkpt><trkpt lat="40.838195175616406" lon="8.640457222917979"><ele>121.0</ele><time>2026-05-01T10:44:01.869Z</time></trkpt><trkpt lat="40.83814157971529" lon="8.640320203643144"><ele>121.0</ele><time>2026-05-01T10:44:02.869Z</time></trkpt><trkpt lat="40.83809294640831" lon="8.64018828530782"><ele>121.0</ele><time>2026-05-01T10:44:03.869Z</time></trkpt><trkpt lat="40.83804589861769" lon="8.64005487369806"><ele>121.0</ele><time>2026-05-01T10:44:04.869Z</time></trkpt><trkpt lat="40.838005441096854" lon="8.639921092549733"><ele>121.0</ele><time>2026-05-01T10:44:05.869Z</time></trkpt><trkpt lat="40.83796528096878" lon="8.639785344672694"><ele>121.0</ele><time>2026-05-01T10:44:06.869Z</time></trkpt><trkpt lat="40.83792942684537" lon="8.63967064673702"><ele>121.0</ele><time>2026-05-01T10:44:07.869Z</time></trkpt><trkpt lat="40.83789272744075" lon="8.639573777474324"><ele>121.0</ele><time>2026-05-01T10:44:08.869Z</time></trkpt><trkpt lat="40.83785498846614" lon="8.639481516902407"><ele>121.0</ele><time>2026-05-01T10:44:09.869Z</time></trkpt><trkpt lat="40.837807964297156" lon="8.639363970609955"><ele>121.0</ele><time>2026-05-01T10:44:10.869Z</time></trkpt><trkpt lat="40.83775493018749" lon="8.63923125980869"><ele>120.5</ele><time>2026-05-01T10:44:11.869Z</time></trkpt><trkpt lat="40.83769606126104" lon="8.639095760977542"><ele>120.0</ele><time>2026-05-01T10:44:12.869Z</time></trkpt><trkpt lat="40.83763732147803" lon="8.638950626016557"><ele>119.5</ele><time>2026-05-01T10:44:13.869Z</time></trkpt><trkpt lat="40.83758374577158" lon="8.638799737419992"><ele>119.0</ele><time>2026-05-01T10:44:14.869Z</time></trkpt><trkpt lat="40.837531818544" lon="8.638652823525238"><ele>120.5</ele><time>2026-05-01T10:44:15.869Z</time></trkpt><trkpt lat="40.83747588176773" lon="8.638502601451238"><ele>122.0</ele><time>2026-05-01T10:44:16.869Z</time></trkpt><trkpt lat="40.837420843874106" lon="8.638359393755062"><ele>123.5</ele><time>2026-05-01T10:44:17.869Z</time></trkpt><trkpt lat="40.83738161584694" lon="8.63822107917401"><ele>125.0</ele><time>2026-05-01T10:44:18.869Z</time></trkpt><trkpt lat="40.83731810827446" lon="8.63807708242735"><ele>125.0</ele><time>2026-05-01T10:44:19.869Z</time></trkpt><trkpt lat="40.83725749960701" lon="8.637937875651541"><ele>125.0</ele><time>2026-05-01T10:44:20.869Z</time></trkpt><trkpt lat="40.83721793376141" lon="8.637788637620138"><ele>125.0</ele><time>2026-05-01T10:44:21.869Z</time></trkpt><trkpt lat="40.83717103756807" lon="8.637651538200734"><ele>125.0</ele><time>2026-05-01T10:44:22.869Z</time></trkpt><trkpt lat="40.83712738901621" lon="8.637506386581839"><ele>124.6</ele><time>2026-05-01T10:44:23.869Z</time></trkpt><trkpt lat="40.83708764439797" lon="8.637373037525988"><ele>124.2</ele><time>2026-05-01T10:44:24.869Z</time></trkpt><trkpt lat="40.83704837739742" lon="8.637248822317858"><ele>123.80000000000001</ele><time>2026-05-01T10:44:25.869Z</time></trkpt><trkpt lat="40.83700604514493" lon="8.637143742337864"><ele>123.4</ele><time>2026-05-01T10:44:26.869Z</time></trkpt><trkpt lat="40.83694917586808" lon="8.637031786130027"><ele>123.0</ele><time>2026-05-01T10:44:27.869Z</time></trkpt><trkpt lat="40.836880895737174" lon="8.636923193311075"><ele>123.75</ele><time>2026-05-01T10:44:28.869Z</time></trkpt><trkpt lat="40.83678306656744" lon="8.63678717973133"><ele>124.5</ele><time>2026-05-01T10:44:29.869Z</time></trkpt><trkpt lat="40.83669153826407" lon="8.636673503074892"><ele>125.25</ele><time>2026-05-01T10:44:30.869Z</time></trkpt><trkpt lat="40.83661574260091" lon="8.63655947383844"><ele>126.0</ele><time>2026-05-01T10:44:31.869Z</time></trkpt><trkpt lat="40.83654710551472" lon="8.636438265462761"><ele>126.0</ele><time>2026-05-01T10:44:32.869Z</time></trkpt><trkpt lat="40.83650617037797" lon="8.63628219223668"><ele>126.0</ele><time>2026-05-01T10:44:33.869Z</time></trkpt><trkpt lat="40.836438721763805" lon="8.636136621943418"><ele>126.0</ele><time>2026-05-01T10:44:34.869Z</time></trkpt><trkpt lat="40.83639857789196" lon="8.635976625541065"><ele>126.0</ele><time>2026-05-01T10:44:35.869Z</time></trkpt><trkpt lat="40.83635220016201" lon="8.63581366300291"><ele>126.19999999999999</ele><time>2026-05-01T10:44:36.869Z</time></trkpt><trkpt lat="40.83630491666097" lon="8.635653142324779"><ele>126.39999999999999</ele><time>2026-05-01T10:44:37.869Z</time></trkpt><trkpt lat="40.83627029055121" lon="8.635501430824712"><ele>126.6</ele><time>2026-05-01T10:44:38.869Z</time></trkpt><trkpt lat="40.83623764778423" lon="8.635374007203389"><ele>126.8</ele><time>2026-05-01T10:44:39.869Z</time></trkpt><trkpt lat="40.836197260566024" lon="8.635263178857896"><ele>127.0</ele><time>2026-05-01T10:44:40.869Z</time></trkpt><trkpt lat="40.83614408973618" lon="8.635152179057144"><ele>128.75</ele><time>2026-05-01T10:44:41.869Z</time></trkpt><trkpt lat="40.83607933157659" lon="8.635034418325308"><ele>130.5</ele><time>2026-05-01T10:44:42.869Z</time></trkpt><trkpt lat="40.83601901509321" lon="8.634904362722637"><ele>132.25</ele><time>2026-05-01T10:44:43.869Z</time></trkpt><trkpt lat="40.83596146939345" lon="8.634758054676094"><ele>134.0</ele><time>2026-05-01T10:44:44.869Z</time></trkpt><trkpt lat="40.83591074110113" lon="8.634610558120205"><ele>136.75</ele><time>2026-05-01T10:44:45.869Z</time></trkpt><trkpt lat="40.83585331882376" lon="8.634462085851355"><ele>139.5</ele><time>2026-05-01T10:44:46.869Z</time></trkpt><trkpt lat="40.83579298358886" lon="8.634309671135464"><ele>142.25</ele><time>2026-05-01T10:44:47.869Z</time></trkpt><trkpt lat="40.83573131562797" lon="8.634155272854338"><ele>145.0</ele><time>2026-05-01T10:44:48.869Z</time></trkpt><trkpt lat="40.835673634859596" lon="8.634000448242464"><ele>145.0</ele><time>2026-05-01T10:44:49.869Z</time></trkpt><trkpt lat="40.83562120693849" lon="8.633848667342555"><ele>145.0</ele><time>2026-05-01T10:44:50.869Z</time></trkpt><trkpt lat="40.83556085975178" lon="8.63371508127446"><ele>145.0</ele><time>2026-05-01T10:44:51.869Z</time></trkpt><trkpt lat="40.83551194325605" lon="8.633592888575837"><ele>145.0</ele><time>2026-05-01T10:44:52.869Z</time></trkpt><trkpt lat="40.835468068291895" lon="8.633487714909856"><ele>145.0</ele><time>2026-05-01T10:44:53.87Z</time></trkpt><trkpt lat="40.83539778648158" lon="8.633403584819831"><ele>144.8</ele><time>2026-05-01T10:44:54.87Z</time></trkpt><trkpt lat="40.83531525372736" lon="8.633327330049768"><ele>144.6</ele><time>2026-05-01T10:44:55.87Z</time></trkpt><trkpt lat="40.835223769697706" lon="8.633250800934723"><ele>144.4</ele><time>2026-05-01T10:44:56.87Z</time></trkpt><trkpt lat="40.83512677184917" lon="8.633175101905964"><ele>144.2</ele><time>2026-05-01T10:44:57.87Z</time></trkpt><trkpt lat="40.8350242112273" lon="8.63309376860492"><ele>144.0</ele><time>2026-05-01T10:44:58.87Z</time></trkpt><trkpt lat="40.83491998038258" lon="8.633011508820006"><ele>144.75</ele><time>2026-05-01T10:44:59.87Z</time></trkpt><trkpt lat="40.83481305912485" lon="8.632927258047074"><ele>145.5</ele><time>2026-05-01T10:45:00.87Z</time></trkpt><trkpt lat="40.83470575589941" lon="8.63284444860457"><ele>146.25</ele><time>2026-05-01T10:45:01.87Z</time></trkpt><trkpt lat="40.83460096623917" lon="8.632763578958823"><ele>147.0</ele><time>2026-05-01T10:45:02.87Z</time></trkpt><trkpt lat="40.834492804717115" lon="8.63268053612836"><ele>147.0</ele><time>2026-05-01T10:45:03.87Z</time></trkpt><trkpt lat="40.83438777129091" lon="8.63260135987148"><ele>147.0</ele><time>2026-05-01T10:45:04.87Z</time></trkpt><trkpt lat="40.83429518375113" lon="8.632531565573396"><ele>147.0</ele><time>2026-05-01T10:45:05.87Z</time></trkpt><trkpt lat="40.83421104034539" lon="8.632466815092592"><ele>147.0</ele><time>2026-05-01T10:45:06.87Z</time></trkpt><trkpt lat="40.83411512944354" lon="8.632412132486342"><ele>147.0</ele><time>2026-05-01T10:45:07.87Z</time></trkpt><trkpt lat="40.83403383684013" lon="8.632335384091522"><ele>148.33333333333334</ele><time>2026-05-01T10:45:08.87Z</time></trkpt><trkpt lat="40.83395380793605" lon="8.63226203958745"><ele>149.66666666666666</ele><time>2026-05-01T10:45:09.87Z</time></trkpt><trkpt lat="40.83387591744807" lon="8.632206075945835"><ele>151.0</ele><time>2026-05-01T10:45:10.87Z</time></trkpt><trkpt lat="40.83381465370884" lon="8.632162503543546"><ele>152.33333333333331</ele><time>2026-05-01T10:45:11.87Z</time></trkpt><trkpt lat="40.83374901125676" lon="8.63210930987263"><ele>153.66666666666666</ele><time>2026-05-01T10:45:12.87Z</time></trkpt><trkpt lat="40.83368736754222" lon="8.632075706580094"><ele>155.0</ele><time>2026-05-01T10:45:13.87Z</time></trkpt><trkpt lat="40.833615050782036" lon="8.632056051186119"><ele>155.0</ele><time>2026-05-01T10:45:14.87Z</time></trkpt><trkpt lat="40.83352626071471" lon="8.632011080571257"><ele>155.0</ele><time>2026-05-01T10:45:15.87Z</time></trkpt><trkpt lat="40.83342937443859" lon="8.631961993073118"><ele>155.0</ele><time>2026-05-01T10:45:16.87Z</time></trkpt><trkpt lat="40.833327738530166" lon="8.631908658579981"><ele>155.0</ele><time>2026-05-01T10:45:17.87Z</time></trkpt><trkpt lat="40.83325402645012" lon="8.63186115306906"><ele>155.0</ele><time>2026-05-01T10:45:18.87Z</time></trkpt><trkpt lat="40.83319802681333" lon="8.631814183395534"><ele>155.0</ele><time>2026-05-01T10:45:19.87Z</time></trkpt><trkpt lat="40.83307480445871" lon="8.63170637075985"><ele>155.0</ele><time>2026-05-01T10:45:21.87Z</time></trkpt><trkpt lat="40.83301168609684" lon="8.63157152230434"><ele>155.0</ele><time>2026-05-01T10:45:23.87Z</time></trkpt><trkpt lat="40.83299994285484" lon="8.63148649121798"><ele>155.0</ele><time>2026-05-01T10:45:24.87Z</time></trkpt><trkpt lat="40.832987807063404" lon="8.63132090599406"><ele>155.0</ele><time>2026-05-01T10:45:26.867Z</time></trkpt><trkpt lat="40.832969185871484" lon="8.631229064085646"><ele>155.0</ele><time>2026-05-01T10:45:27.867Z</time></trkpt><trkpt lat="40.832942233675354" lon="8.63112889341106"><ele>155.0</ele><time>2026-05-01T10:45:28.867Z</time></trkpt><trkpt lat="40.832907516300864" lon="8.631031348891641"><ele>155.0</ele><time>2026-05-01T10:45:29.867Z</time></trkpt><trkpt lat="40.83286544820503" lon="8.630929665901835"><ele>155.0</ele><time>2026-05-01T10:45:30.867Z</time></trkpt><trkpt lat="40.83282054654387" lon="8.630835244121002"><ele>155.0</ele><time>2026-05-01T10:45:31.867Z</time></trkpt><trkpt lat="40.83277686161331" lon="8.630742793374182"><ele>154.4</ele><time>2026-05-01T10:45:32.867Z</time></trkpt><trkpt lat="40.83273586849309" lon="8.630649131624239"><ele>153.8</ele><time>2026-05-01T10:45:33.867Z</time></trkpt><trkpt lat="40.832702009609136" lon="8.630558489381396"><ele>153.2</ele><time>2026-05-01T10:45:34.867Z</time></trkpt><trkpt lat="40.83267347529686" lon="8.630480070432023"><ele>152.6</ele><time>2026-05-01T10:45:35.867Z</time></trkpt><trkpt lat="40.8326537319746" lon="8.630318162088066"><ele>152.0</ele><time>2026-05-01T10:45:37.867Z</time></trkpt><trkpt lat="40.83263687844737" lon="8.63016720591063"><ele>150.25</ele><time>2026-05-01T10:45:39.867Z</time></trkpt><trkpt lat="40.832582275295586" lon="8.63002118044817"><ele>148.5</ele><time>2026-05-01T10:45:41.867Z</time></trkpt><trkpt lat="40.83251144067318" lon="8.629892006305766"><ele>146.75</ele><time>2026-05-01T10:45:43.867Z</time></trkpt><trkpt lat="40.83242660995412" lon="8.629803924550833"><ele>145.0</ele><time>2026-05-01T10:45:45.867Z</time></trkpt><trkpt lat="40.83232174359961" lon="8.629783236581453"><ele>145.0</ele><time>2026-05-01T10:45:47.867Z</time></trkpt><trkpt lat="40.83225609415585" lon="8.629785487643524"><ele>145.0</ele><time>2026-05-01T10:45:48.867Z</time></trkpt><trkpt lat="40.83218183655461" lon="8.629781695924674"><ele>145.0</ele><time>2026-05-01T10:45:49.867Z</time></trkpt><trkpt lat="40.832101144998944" lon="8.629767145211469"><ele>145.0</ele><time>2026-05-01T10:45:50.867Z</time></trkpt><trkpt lat="40.83202313631014" lon="8.629743353341283"><ele>145.0</ele><time>2026-05-01T10:45:51.867Z</time></trkpt><trkpt lat="40.83195909834752" lon="8.629719836255896"><ele>145.0</ele><time>2026-05-01T10:45:52.867Z</time></trkpt><trkpt lat="40.83187123386173" lon="8.629677152798392"><ele>145.0</ele><time>2026-05-01T10:45:54.867Z</time></trkpt><trkpt lat="40.83180923088039" lon="8.629645325612646"><ele>145.0</ele><time>2026-05-01T10:45:56.867Z</time></trkpt><trkpt lat="40.83174310851412" lon="8.62962132001894"><ele>145.0</ele><time>2026-05-01T10:45:58.867Z</time></trkpt><trkpt lat="40.83168310655205" lon="8.629591809741191"><ele>145.0</ele><time>2026-05-01T10:46:00.867Z</time></trkpt><trkpt lat="40.83161088113476" lon="8.629527008748624"><ele>145.0</ele><time>2026-05-01T10:46:02.867Z</time></trkpt><trkpt lat="40.831527099778086" lon="8.629485045538074"><ele>145.0</ele><time>2026-05-01T10:46:04.867Z</time></trkpt><trkpt lat="40.831459970756754" lon="8.62939024833458"><ele>142.2</ele><time>2026-05-01T10:46:06.867Z</time></trkpt><trkpt lat="40.83138853570368" lon="8.629301557280629"><ele>139.4</ele><time>2026-05-01T10:46:08.867Z</time></trkpt><trkpt lat="40.831323723538596" lon="8.629206628253558"><ele>136.6</ele><time>2026-05-01T10:46:10.867Z</time></trkpt><trkpt lat="40.83125745717958" lon="8.629090990126778"><ele>133.8</ele><time>2026-05-01T10:46:12.867Z</time></trkpt><trkpt lat="40.8311949510081" lon="8.628979162125663"><ele>131.0</ele><time>2026-05-01T10:46:14.867Z</time></trkpt><trkpt lat="40.83115411077478" lon="8.628914881873394"><ele>131.0</ele><time>2026-05-01T10:46:15.867Z</time></trkpt><trkpt lat="40.831109197428255" lon="8.628847125582162"><ele>131.0</ele><time>2026-05-01T10:46:16.867Z</time></trkpt><trkpt lat="40.83107020416317" lon="8.62877912387727"><ele>131.0</ele><time>2026-05-01T10:46:17.867Z</time></trkpt><trkpt lat="40.83103052685614" lon="8.628710522509516"><ele>131.0</ele><time>2026-05-01T10:46:18.867Z</time></trkpt><trkpt lat="40.83096897921868" lon="8.628597542219964"><ele>131.0</ele><time>2026-05-01T10:46:20.867Z</time></trkpt><trkpt lat="40.83092193878088" lon="8.628481524293836"><ele>131.0</ele><time>2026-05-01T10:46:22.867Z</time></trkpt><trkpt lat="40.83086017016776" lon="8.62838538970414"><ele>129.66666666666666</ele><time>2026-05-01T10:46:24.867Z</time></trkpt><trkpt lat="40.83080912145227" lon="8.628274419846825"><ele>128.33333333333331</ele><time>2026-05-01T10:46:26.867Z</time></trkpt><trkpt lat="40.83074728165497" lon="8.62819688034181"><ele>127.0</ele><time>2026-05-01T10:46:28.867Z</time></trkpt><trkpt lat="40.830675178790216" lon="8.628146886290315"><ele>125.66666666666666</ele><time>2026-05-01T10:46:30.867Z</time></trkpt><trkpt lat="40.83061121723962" lon="8.62812003714623"><ele>124.33333333333333</ele><time>2026-05-01T10:46:32.867Z</time></trkpt><trkpt lat="40.83053956398107" lon="8.6281119087494"><ele>123.0</ele><time>2026-05-01T10:46:34.867Z</time></trkpt><trkpt lat="40.83045741339247" lon="8.628132013751848"><ele>123.0</ele><time>2026-05-01T10:46:36.867Z</time></trkpt><trkpt lat="40.83037749772679" lon="8.628104102288553"><ele>123.0</ele><time>2026-05-01T10:46:38.867Z</time></trkpt><trkpt lat="40.830310916498604" lon="8.628067512023705"><ele>123.0</ele><time>2026-05-01T10:46:40.867Z</time></trkpt><trkpt lat="40.830250240229304" lon="8.62800119765826"><ele>123.0</ele><time>2026-05-01T10:46:42.867Z</time></trkpt><trkpt lat="40.83018564699447" lon="8.627920796892415"><ele>123.0</ele><time>2026-05-01T10:46:44.867Z</time></trkpt><trkpt lat="40.83013503515996" lon="8.627808032043285"><ele>123.0</ele><time>2026-05-01T10:46:46.867Z</time></trkpt><trkpt lat="40.83009934642724" lon="8.627674997919007"><ele>120.0</ele><time>2026-05-01T10:46:48.867Z</time></trkpt><trkpt lat="40.830047145928" lon="8.627567807214154"><ele>117.00000000000001</ele><time>2026-05-01T10:46:50.867Z</time></trkpt><trkpt lat="40.82999991390408" lon="8.627510683648529"><ele>114.00000000000001</ele><time>2026-05-01T10:46:51.867Z</time></trkpt><trkpt lat="40.82992658333858" lon="8.627406283293592"><ele>111.0</ele><time>2026-05-01T10:46:53.867Z</time></trkpt><trkpt lat="40.82984030158799" lon="8.627284745768804"><ele>108.0</ele><time>2026-05-01T10:46:55.867Z</time></trkpt><trkpt lat="40.82978033528193" lon="8.627237867939655"><ele>108.0</ele><time>2026-05-01T10:46:56.867Z</time></trkpt><trkpt lat="40.82969087443354" lon="8.627141724834358"><ele>108.0</ele><time>2026-05-01T10:46:58.867Z</time></trkpt><trkpt lat="40.82965094853857" lon="8.627076459666002"><ele>108.0</ele><time>2026-05-01T10:46:59.867Z</time></trkpt><trkpt lat="40.82959500178601" lon="8.626951579355541"><ele>108.0</ele><time>2026-05-01T10:47:01.867Z</time></trkpt><trkpt lat="40.82957221649565" lon="8.62685085760152"><ele>108.0</ele><time>2026-05-01T10:47:03.867Z</time></trkpt><trkpt lat="40.82955435250839" lon="8.626765975173798"><ele>108.0</ele><time>2026-05-01T10:47:05.867Z</time></trkpt><trkpt lat="40.829530400141444" lon="8.62666710796798"><ele>107.5</ele><time>2026-05-01T10:47:07.867Z</time></trkpt><trkpt lat="40.829517923826906" lon="8.626575951779387"><ele>107.0</ele><time>2026-05-01T10:47:09.867Z</time></trkpt><trkpt lat="40.82949359966103" lon="8.626460622496943"><ele>106.5</ele><time>2026-05-01T10:47:11.867Z</time></trkpt><trkpt lat="40.82946751344358" lon="8.626336146617817"><ele>106.0</ele><time>2026-05-01T10:47:13.867Z</time></trkpt><trkpt lat="40.8294536526614" lon="8.62623433005071"><ele>105.5</ele><time>2026-05-01T10:47:15.867Z</time></trkpt><trkpt lat="40.829436832073036" lon="8.626100761033722"><ele>105.0</ele><time>2026-05-01T10:47:17.867Z</time></trkpt><trkpt lat="40.829427470111014" lon="8.6259794073356"><ele>104.66666666666667</ele><time>2026-05-01T10:47:19.867Z</time></trkpt><trkpt lat="40.829418240129556" lon="8.625852151903"><ele>104.33333333333334</ele><time>2026-05-01T10:47:21.867Z</time></trkpt><trkpt lat="40.829392195376066" lon="8.625703600988343"><ele>104.0</ele><time>2026-05-01T10:47:23.867Z</time></trkpt><trkpt lat="40.82937030890775" lon="8.625604825173923"><ele>103.66666666666667</ele><time>2026-05-01T10:47:24.867Z</time></trkpt><trkpt lat="40.82936006412583" lon="8.625510651768334"><ele>103.33333333333334</ele><time>2026-05-01T10:47:25.867Z</time></trkpt><trkpt lat="40.82934515545206" lon="8.625424893038238"><ele>103.0</ele><time>2026-05-01T10:47:26.867Z</time></trkpt><trkpt lat="40.82929957337134" lon="8.625279464528951"><ele>101.16666666666667</ele><time>2026-05-01T10:47:28.867Z</time></trkpt><trkpt lat="40.82924616750081" lon="8.625196839271501"><ele>99.33333333333334</ele><time>2026-05-01T10:47:29.867Z</time></trkpt><trkpt lat="40.829197553133554" lon="8.625102470699765"><ele>97.5</ele><time>2026-05-01T10:47:30.867Z</time></trkpt><trkpt lat="40.82913444195037" lon="8.625022531893812"><ele>95.66666666666667</ele><time>2026-05-01T10:47:31.867Z</time></trkpt><trkpt lat="40.82909218313405" lon="8.624917045560423"><ele>93.83333333333334</ele><time>2026-05-01T10:47:32.865Z</time></trkpt><trkpt lat="40.82904330639559" lon="8.62483119501485"><ele>92.0</ele><time>2026-05-01T10:47:33.865Z</time></trkpt><trkpt lat="40.82900213812538" lon="8.624749330127676"><ele>92.0</ele><time>2026-05-01T10:47:34.865Z</time></trkpt><trkpt lat="40.82897830649652" lon="8.624668265504427"><ele>92.0</ele><time>2026-05-01T10:47:35.865Z</time></trkpt><trkpt lat="40.82896007318769" lon="8.624568588857182"><ele>92.0</ele><time>2026-05-01T10:47:36.865Z</time></trkpt><trkpt lat="40.82894920219564" lon="8.624461921123723"><ele>92.0</ele><time>2026-05-01T10:47:37.865Z</time></trkpt><trkpt lat="40.82893925690807" lon="8.624348051216973"><ele>92.0</ele><time>2026-05-01T10:47:38.864Z</time></trkpt><trkpt lat="40.828926155783385" lon="8.624241815644956"><ele>92.0</ele><time>2026-05-01T10:47:39.865Z</time></trkpt><trkpt lat="40.828903737333505" lon="8.62413835486314"><ele>91.33333333333334</ele><time>2026-05-01T10:47:40.865Z</time></trkpt><trkpt lat="40.82888421725977" lon="8.62405240272822"><ele>90.66666666666667</ele><time>2026-05-01T10:47:41.864Z</time></trkpt><trkpt lat="40.828854559837175" lon="8.623966691903345"><ele>90.0</ele><time>2026-05-01T10:47:42.864Z</time></trkpt><trkpt lat="40.8287933293032" lon="8.623813371364786"><ele>89.33333333333333</ele><time>2026-05-01T10:47:44.864Z</time></trkpt><trkpt lat="40.82875147122052" lon="8.623736093571072"><ele>88.66666666666666</ele><time>2026-05-01T10:47:45.864Z</time></trkpt><trkpt lat="40.828704919892196" lon="8.623664187373494"><ele>88.0</ele><time>2026-05-01T10:47:46.864Z</time></trkpt><trkpt lat="40.82865467795194" lon="8.623592864149304"><ele>87.16666666666666</ele><time>2026-05-01T10:47:47.864Z</time></trkpt><trkpt lat="40.828603006776085" lon="8.623529016688124"><ele>86.33333333333333</ele><time>2026-05-01T10:47:48.864Z</time></trkpt><trkpt lat="40.82855846843418" lon="8.623467722998983"><ele>85.5</ele><time>2026-05-01T10:47:49.864Z</time></trkpt><trkpt lat="40.82848376289942" lon="8.623349498275909"><ele>84.66666666666667</ele><time>2026-05-01T10:47:51.864Z</time></trkpt><trkpt lat="40.82842793759136" lon="8.623298307145149"><ele>83.83333333333334</ele><time>2026-05-01T10:47:52.864Z</time></trkpt><trkpt lat="40.82833089985188" lon="8.623245123903473"><ele>83.0</ele><time>2026-05-01T10:47:54.864Z</time></trkpt><trkpt lat="40.82824486277263" lon="8.623250949876587"><ele>82.5</ele><time>2026-05-01T10:47:56.864Z</time></trkpt><trkpt lat="40.8281625604858" lon="8.623282247221196"><ele>82.0</ele><time>2026-05-01T10:48:04.864Z</time></trkpt><trkpt lat="40.828040810665165" lon="8.623307258569211"><ele>81.5</ele><time>2026-05-01T10:48:06.864Z</time></trkpt><trkpt lat="40.8279714021023" lon="8.623306029187297"><ele>81.0</ele><time>2026-05-01T10:48:07.864Z</time></trkpt><trkpt lat="40.82789719892368" lon="8.623294651655462"><ele>80.5</ele><time>2026-05-01T10:48:08.864Z</time></trkpt><trkpt lat="40.827817539072" lon="8.623272519799276"><ele>80.0</ele><time>2026-05-01T10:48:09.864Z</time></trkpt><trkpt lat="40.82772471405266" lon="8.62324227794296"><ele>80.8</ele><time>2026-05-01T10:48:10.864Z</time></trkpt><trkpt lat="40.82763130963932" lon="8.62321073307008"><ele>81.6</ele><time>2026-05-01T10:48:11.864Z</time></trkpt><trkpt lat="40.82753973437518" lon="8.623183445355341"><ele>82.4</ele><time>2026-05-01T10:48:12.864Z</time></trkpt><trkpt lat="40.8274393772026" lon="8.62318884295852"><ele>83.2</ele><time>2026-05-01T10:48:13.864Z</time></trkpt><trkpt lat="40.82735346998615" lon="8.623201368052964"><ele>84.0</ele><time>2026-05-01T10:48:14.864Z</time></trkpt><trkpt lat="40.82727268763048" lon="8.623214325529526"><ele>84.0</ele><time>2026-05-01T10:48:15.864Z</time></trkpt><trkpt lat="40.82717950230144" lon="8.623231029825805"><ele>84.0</ele><time>2026-05-01T10:48:16.864Z</time></trkpt><trkpt lat="40.82708563648931" lon="8.623213681349638"><ele>84.0</ele><time>2026-05-01T10:48:17.864Z</time></trkpt><trkpt lat="40.82698175706559" lon="8.623199534048446"><ele>84.0</ele><time>2026-05-01T10:48:18.864Z</time></trkpt><trkpt lat="40.8268763999216" lon="8.62318191472234"><ele>84.0</ele><time>2026-05-01T10:48:19.864Z</time></trkpt><trkpt lat="40.82676395699815" lon="8.623167584482895"><ele>84.4</ele><time>2026-05-01T10:48:20.864Z</time></trkpt><trkpt lat="40.82664587132221" lon="8.62315096863021"><ele>84.80000000000001</ele><time>2026-05-01T10:48:21.864Z</time></trkpt><trkpt lat="40.826532860904855" lon="8.623136332692267"><ele>85.19999999999999</ele><time>2026-05-01T10:48:22.864Z</time></trkpt><trkpt lat="40.82643007252121" lon="8.623105129691975"><ele>85.6</ele><time>2026-05-01T10:48:23.864Z</time></trkpt><trkpt lat="40.82632621443753" lon="8.6230563972776"><ele>86.0</ele><time>2026-05-01T10:48:24.864Z</time></trkpt><trkpt lat="40.82622282184191" lon="8.622992358135214"><ele>86.0</ele><time>2026-05-01T10:48:25.864Z</time></trkpt><trkpt lat="40.826130186255945" lon="8.622923275562606"><ele>86.0</ele><time>2026-05-01T10:48:26.864Z</time></trkpt><trkpt lat="40.8260588780796" lon="8.622844022321138"><ele>86.0</ele><time>2026-05-01T10:48:27.864Z</time></trkpt><trkpt lat="40.826001862186196" lon="8.622795784800378"><ele>86.0</ele><time>2026-05-01T10:48:28.864Z</time></trkpt><trkpt lat="40.82594598568114" lon="8.622667703184382"><ele>86.0</ele><time>2026-05-01T10:48:30.865Z</time></trkpt><trkpt lat="40.82591021361318" lon="8.622572724908615"><ele>85.25</ele><time>2026-05-01T10:48:31.865Z</time></trkpt><trkpt lat="40.82586988140097" lon="8.622450030602497"><ele>84.5</ele><time>2026-05-01T10:48:32.865Z</time></trkpt><trkpt lat="40.82582512448967" lon="8.622308076864503"><ele>83.75</ele><time>2026-05-01T10:48:33.865Z</time></trkpt><trkpt lat="40.825762852501434" lon="8.62215512012256"><ele>83.0</ele><time>2026-05-01T10:48:34.865Z</time></trkpt><trkpt lat="40.825722137032045" lon="8.621993286756192"><ele>82.5</ele><time>2026-05-01T10:48:35.865Z</time></trkpt><trkpt lat="40.82567211277861" lon="8.621829614654331"><ele>82.0</ele><time>2026-05-01T10:48:36.865Z</time></trkpt><trkpt lat="40.82562199626609" lon="8.621666917812087"><ele>81.5</ele><time>2026-05-01T10:48:37.865Z</time></trkpt><trkpt lat="40.82557867952372" lon="8.621503244779932"><ele>81.0</ele><time>2026-05-01T10:48:38.865Z</time></trkpt><trkpt lat="40.825526320007675" lon="8.621346862967835"><ele>81.0</ele><time>2026-05-01T10:48:39.865Z</time></trkpt><trkpt lat="40.825471885512776" lon="8.621189135732376"><ele>81.0</ele><time>2026-05-01T10:48:40.865Z</time></trkpt><trkpt lat="40.82542474897843" lon="8.621037385796914"><ele>81.0</ele><time>2026-05-01T10:48:41.865Z</time></trkpt><trkpt lat="40.825378059543034" lon="8.620884804391178"><ele>81.0</ele><time>2026-05-01T10:48:42.865Z</time></trkpt><trkpt lat="40.825338981602144" lon="8.620740952781825"><ele>80.6</ele><time>2026-05-01T10:48:43.865Z</time></trkpt><trkpt lat="40.82530844563008" lon="8.62060662499129"><ele>80.19999999999999</ele><time>2026-05-01T10:48:44.865Z</time></trkpt><trkpt lat="40.82528251337757" lon="8.62050643595235"><ele>79.80000000000001</ele><time>2026-05-01T10:48:45.865Z</time></trkpt><trkpt lat="40.82526355073618" lon="8.620370653827168"><ele>79.4</ele><time>2026-05-01T10:48:47.865Z</time></trkpt><trkpt lat="40.825180162947326" lon="8.620322197083034"><ele>79.0</ele><time>2026-05-01T10:48:48.865Z</time></trkpt><trkpt lat="40.8251026512068" lon="8.620245846569087"><ele>78.16666666666666</ele><time>2026-05-01T10:48:49.865Z</time></trkpt><trkpt lat="40.82501801165474" lon="8.620188955004975"><ele>77.33333333333333</ele><time>2026-05-01T10:48:50.865Z</time></trkpt><trkpt lat="40.824921603578815" lon="8.620139368582496"><ele>76.5</ele><time>2026-05-01T10:48:51.865Z</time></trkpt><trkpt lat="40.82483507011581" lon="8.620085170030764"><ele>75.66666666666667</ele><time>2026-05-01T10:48:52.865Z</time></trkpt><trkpt lat="40.82475533676677" lon="8.62007466601697"><ele>74.83333333333334</ele><time>2026-05-01T10:48:53.865Z</time></trkpt><trkpt lat="40.82468620138501" lon="8.620095921782664"><ele>74.0</ele><time>2026-05-01T10:48:54.865Z</time></trkpt><trkpt lat="40.824618972363545" lon="8.620148200687035"><ele>74.0</ele><time>2026-05-01T10:48:55.865Z</time></trkpt><trkpt lat="40.824563935649245" lon="8.620235924453302"><ele>74.0</ele><time>2026-05-01T10:48:56.865Z</time></trkpt><trkpt lat="40.8244868499484" lon="8.620298364270987"><ele>74.0</ele><time>2026-05-01T10:48:57.865Z</time></trkpt><trkpt lat="40.82441836823782" lon="8.62039732204612"><ele>74.0</ele><time>2026-05-01T10:48:58.865Z</time></trkpt><trkpt lat="40.82432907907553" lon="8.620489658792017"><ele>74.0</ele><time>2026-05-01T10:48:59.865Z</time></trkpt><trkpt lat="40.82424402811312" lon="8.620584066870316"><ele>73.60000000000001</ele><time>2026-05-01T10:49:00.865Z</time></trkpt><trkpt lat="40.8241712448061" lon="8.62066582173656"><ele>73.2</ele><time>2026-05-01T10:49:01.865Z</time></trkpt><trkpt lat="40.82410554543769" lon="8.620736183257792"><ele>72.80000000000001</ele><time>2026-05-01T10:49:02.865Z</time></trkpt><trkpt lat="40.82404648283904" lon="8.62079298461298"><ele>72.4</ele><time>2026-05-01T10:49:03.865Z</time></trkpt><trkpt lat="40.823923950903186" lon="8.620813922733655"><ele>72.0</ele><time>2026-05-01T10:49:05.865Z</time></trkpt><trkpt lat="40.82384985082628" lon="8.620775944710307"><ele>72.0</ele><time>2026-05-01T10:49:06.865Z</time></trkpt><trkpt lat="40.82376714770701" lon="8.620732771317684"><ele>72.0</ele><time>2026-05-01T10:49:07.865Z</time></trkpt><trkpt lat="40.8236903791051" lon="8.620665361416549"><ele>72.0</ele><time>2026-05-01T10:49:08.865Z</time></trkpt><trkpt lat="40.823600092597836" lon="8.620609389586757"><ele>72.0</ele><time>2026-05-01T10:49:09.865Z</time></trkpt><trkpt lat="40.82349873506648" lon="8.62055679330682"><ele>72.0</ele><time>2026-05-01T10:49:10.865Z</time></trkpt><trkpt lat="40.823386745345196" lon="8.62050686848985"><ele>71.5</ele><time>2026-05-01T10:49:11.865Z</time></trkpt><trkpt lat="40.82327399071869" lon="8.62046588199873"><ele>71.0</ele><time>2026-05-01T10:49:12.865Z</time></trkpt><trkpt lat="40.82316307627077" lon="8.62042192211876"><ele>70.5</ele><time>2026-05-01T10:49:13.865Z</time></trkpt><trkpt lat="40.82304915754762" lon="8.620383866287689"><ele>70.0</ele><time>2026-05-01T10:49:14.865Z</time></trkpt><trkpt lat="40.82291919924616" lon="8.620349194533283"><ele>69.5</ele><time>2026-05-01T10:49:15.865Z</time></trkpt><trkpt lat="40.822781320259764" lon="8.620309590052392"><ele>69.0</ele><time>2026-05-01T10:49:16.865Z</time></trkpt><trkpt lat="40.822640805992975" lon="8.62026757079176"><ele>68.5</ele><time>2026-05-01T10:49:17.865Z</time></trkpt><trkpt lat="40.82251096446387" lon="8.620217177748659"><ele>68.0</ele><time>2026-05-01T10:49:18.865Z</time></trkpt><trkpt lat="40.822390496267246" lon="8.620168172426096"><ele>66.75</ele><time>2026-05-01T10:49:19.865Z</time></trkpt><trkpt lat="40.822277372680006" lon="8.620122941857836"><ele>65.5</ele><time>2026-05-01T10:49:20.865Z</time></trkpt><trkpt lat="40.822156015400076" lon="8.620076501799883"><ele>64.25</ele><time>2026-05-01T10:49:21.865Z</time></trkpt><trkpt lat="40.82204078970179" lon="8.620032458142408"><ele>63.0</ele><time>2026-05-01T10:49:22.865Z</time></trkpt><trkpt lat="40.821940983328524" lon="8.619960756606869"><ele>63.0</ele><time>2026-05-01T10:49:23.865Z</time></trkpt><trkpt lat="40.82183881956671" lon="8.61989912091251"><ele>63.0</ele><time>2026-05-01T10:49:24.865Z</time></trkpt><trkpt lat="40.821743356066584" lon="8.619826908365441"><ele>63.0</ele><time>2026-05-01T10:49:25.865Z</time></trkpt><trkpt lat="40.82165119246579" lon="8.619748707651084"><ele>63.0</ele><time>2026-05-01T10:49:26.865Z</time></trkpt><trkpt lat="40.82155199653088" lon="8.619665111640922"><ele>63.0</ele><time>2026-05-01T10:49:27.865Z</time></trkpt><trkpt lat="40.821443679295434" lon="8.619586767835262"><ele>63.0</ele><time>2026-05-01T10:49:28.865Z</time></trkpt><trkpt lat="40.82133439427316" lon="8.61950432501654"><ele>63.0</ele><time>2026-05-01T10:49:29.865Z</time></trkpt><trkpt lat="40.82122534193337" lon="8.619418093302583"><ele>63.0</ele><time>2026-05-01T10:49:30.865Z</time></trkpt><trkpt lat="40.82112796612051" lon="8.619317509371855"><ele>63.0</ele><time>2026-05-01T10:49:31.865Z</time></trkpt><trkpt lat="40.82104986936011" lon="8.619185653845324"><ele>61.0</ele><time>2026-05-01T10:49:32.865Z</time></trkpt><trkpt lat="40.82095303707638" lon="8.619073162125149"><ele>59.0</ele><time>2026-05-01T10:49:33.865Z</time></trkpt><trkpt lat="40.820863460086855" lon="8.618954921804741"><ele>57.0</ele><time>2026-05-01T10:49:34.865Z</time></trkpt><trkpt lat="40.82076129970216" lon="8.618846951132442"><ele>55.0</ele><time>2026-05-01T10:49:35.865Z</time></trkpt><trkpt lat="40.820651970414815" lon="8.618750748675984"><ele>55.0</ele><time>2026-05-01T10:49:36.865Z</time></trkpt><trkpt lat="40.820544387931946" lon="8.618667413229618"><ele>55.0</ele><time>2026-05-01T10:49:37.865Z</time></trkpt><trkpt lat="40.82044154877305" lon="8.618572568945904"><ele>55.0</ele><time>2026-05-01T10:49:38.862Z</time></trkpt><trkpt lat="40.82034586988079" lon="8.618472358421561"><ele>55.0</ele><time>2026-05-01T10:49:39.862Z</time></trkpt><trkpt lat="40.82025228487145" lon="8.618361231664846"><ele>55.6</ele><time>2026-05-01T10:49:40.862Z</time></trkpt><trkpt lat="40.820178173620135" lon="8.61824973971318"><ele>56.2</ele><time>2026-05-01T10:49:41.862Z</time></trkpt><trkpt lat="40.820098759769024" lon="8.618167140915519"><ele>56.8</ele><time>2026-05-01T10:49:42.862Z</time></trkpt><trkpt lat="40.82003410454262" lon="8.61807993249581"><ele>57.4</ele><time>2026-05-01T10:49:43.862Z</time></trkpt><trkpt lat="40.819987932194145" lon="8.617989947375646"><ele>58.0</ele><time>2026-05-01T10:49:44.862Z</time></trkpt><trkpt lat="40.819945517509176" lon="8.617890252409737"><ele>56.599999999999994</ele><time>2026-05-01T10:49:45.861Z</time></trkpt><trkpt lat="40.819911596423175" lon="8.617766634571447"><ele>55.199999999999996</ele><time>2026-05-01T10:49:46.861Z</time></trkpt><trkpt lat="40.81988016794404" lon="8.617637188165286"><ele>53.8</ele><time>2026-05-01T10:49:47.862Z</time></trkpt><trkpt lat="40.819848355530276" lon="8.617506097717788"><ele>52.4</ele><time>2026-05-01T10:49:48.862Z</time></trkpt><trkpt lat="40.81981476608127" lon="8.617369083723636"><ele>51.0</ele><time>2026-05-01T10:49:49.862Z</time></trkpt><trkpt lat="40.81977993271923" lon="8.617227999118203"><ele>51.0</ele><time>2026-05-01T10:49:50.861Z</time></trkpt><trkpt lat="40.819752553676956" lon="8.617081540574716"><ele>51.0</ele><time>2026-05-01T10:49:51.861Z</time></trkpt><trkpt lat="40.819731000422045" lon="8.616939013107896"><ele>51.0</ele><time>2026-05-01T10:49:52.861Z</time></trkpt><trkpt lat="40.819708293513926" lon="8.616795492388054"><ele>51.0</ele><time>2026-05-01T10:49:53.861Z</time></trkpt><trkpt lat="40.81968486997787" lon="8.61665256778168"><ele>51.0</ele><time>2026-05-01T10:49:54.861Z</time></trkpt><trkpt lat="40.819658619924695" lon="8.616509549477579"><ele>50.4</ele><time>2026-05-01T10:49:55.861Z</time></trkpt><trkpt lat="40.819633180120796" lon="8.616368022400625"><ele>49.8</ele><time>2026-05-01T10:49:56.861Z</time></trkpt><trkpt lat="40.819606385497416" lon="8.61623062299576"><ele>49.199999999999996</ele><time>2026-05-01T10:49:57.861Z</time></trkpt><trkpt lat="40.81958054025538" lon="8.616116879804288"><ele>48.599999999999994</ele><time>2026-05-01T10:49:58.861Z</time></trkpt><trkpt lat="40.81956914283279" lon="8.616010685780436"><ele>48.0</ele><time>2026-05-01T10:49:59.861Z</time></trkpt><trkpt lat="40.81957736850269" lon="8.615909035684327"><ele>47.166666666666664</ele><time>2026-05-01T10:50:00.861Z</time></trkpt><trkpt lat="40.81959948842933" lon="8.615800470278574"><ele>46.333333333333336</ele><time>2026-05-01T10:50:01.861Z</time></trkpt><trkpt lat="40.819643091822954" lon="8.61570686051168"><ele>45.5</ele><time>2026-05-01T10:50:02.861Z</time></trkpt><trkpt lat="40.819649523369435" lon="8.615614269128075"><ele>44.66666666666667</ele><time>2026-05-01T10:50:03.861Z</time></trkpt><trkpt lat="40.8196640045801" lon="8.615469670153994"><ele>43.833333333333336</ele><time>2026-05-01T10:50:05.861Z</time></trkpt><trkpt lat="40.8196290299667" lon="8.615395876850672"><ele>43.0</ele><time>2026-05-01T10:50:15.861Z</time></trkpt><trkpt lat="40.81967952352991" lon="8.615518754281053"><ele>43.0</ele><time>2026-05-01T10:50:24.862Z</time></trkpt><trkpt lat="40.81966235655707" lon="8.615623003312452"><ele>43.0</ele><time>2026-05-01T10:50:25.862Z</time></trkpt><trkpt lat="40.81941948612409" lon="8.615531166135806"><ele>43.0</ele><time>2026-05-01T10:50:31.862Z</time></trkpt><trkpt lat="40.81955567181603" lon="8.615272522348397"><ele>43.0</ele><time>2026-05-01T10:50:35.862Z</time></trkpt><trkpt lat="40.81960130094063" lon="8.61533626189933"><ele>43.0</ele><time>2026-05-01T10:50:43.862Z</time></trkpt><trkpt lat="40.81967492535886" lon="8.615597080155462"><ele>43.0</ele><time>2026-05-01T10:50:45.862Z</time></trkpt><trkpt lat="40.819687156252904" lon="8.615474176042234"><ele>43.0</ele><time>2026-05-01T10:50:51.862Z</time></trkpt><trkpt lat="40.819649515192594" lon="8.615360441444228"><ele>41.8</ele><time>2026-05-01T10:50:54.862Z</time></trkpt><trkpt lat="40.81969120580556" lon="8.615236492665892"><ele>40.599999999999994</ele><time>2026-05-01T10:50:56.862Z</time></trkpt><trkpt lat="40.81970013815623" lon="8.615137786507182"><ele>39.400000000000006</ele><time>2026-05-01T10:50:58.862Z</time></trkpt><trkpt lat="40.81966164318883" lon="8.614979382201613"><ele>38.2</ele><time>2026-05-01T10:51:02.862Z</time></trkpt><trkpt lat="40.81963772786917" lon="8.61487825796614"><ele>37.0</ele><time>2026-05-01T10:51:04.862Z</time></trkpt><trkpt lat="40.81961264986221" lon="8.61474059305657"><ele>37.0</ele><time>2026-05-01T10:51:06.862Z</time></trkpt><trkpt lat="40.819597993867305" lon="8.61457496384139"><ele>37.0</ele><time>2026-05-01T10:51:08.862Z</time></trkpt><trkpt lat="40.81959169959112" lon="8.61448971771268"><ele>37.0</ele><time>2026-05-01T10:51:09.862Z</time></trkpt><trkpt lat="40.819581780016755" lon="8.614328671187144"><ele>37.0</ele><time>2026-05-01T10:51:11.862Z</time></trkpt><trkpt lat="40.819569945663496" lon="8.614163398751938"><ele>37.0</ele><time>2026-05-01T10:51:13.862Z</time></trkpt><trkpt lat="40.81956826207175" lon="8.614062330856699"><ele>35.66666666666667</ele><time>2026-05-01T10:51:14.862Z</time></trkpt><trkpt lat="40.81956820060611" lon="8.61395245186119"><ele>34.333333333333336</ele><time>2026-05-01T10:51:15.862Z</time></trkpt><trkpt lat="40.819568663614575" lon="8.613837854900268"><ele>33.0</ele><time>2026-05-01T10:51:16.862Z</time></trkpt><trkpt lat="40.81958713532175" lon="8.613733791560637"><ele>31.666666666666664</ele><time>2026-05-01T10:51:17.862Z</time></trkpt><trkpt lat="40.81959008627373" lon="8.61362038577611"><ele>30.333333333333332</ele><time>2026-05-01T10:51:18.862Z</time></trkpt><trkpt lat="40.81959621280248" lon="8.613502293663958"><ele>29.0</ele><time>2026-05-01T10:51:19.862Z</time></trkpt><trkpt lat="40.81960650256526" lon="8.61337587250061"><ele>28.166666666666664</ele><time>2026-05-01T10:51:20.862Z</time></trkpt><trkpt lat="40.81962218772997" lon="8.613252202406684"><ele>27.333333333333332</ele><time>2026-05-01T10:51:21.862Z</time></trkpt><trkpt lat="40.819634675189654" lon="8.61313073849468"><ele>26.5</ele><time>2026-05-01T10:51:22.862Z</time></trkpt><trkpt lat="40.81965105239271" lon="8.613016214077064"><ele>25.666666666666664</ele><time>2026-05-01T10:51:23.862Z</time></trkpt><trkpt lat="40.819659836898886" lon="8.612914521848456"><ele>24.833333333333332</ele><time>2026-05-01T10:51:24.862Z</time></trkpt><trkpt lat="40.81966525669367" lon="8.612829202363777"><ele>24.0</ele><time>2026-05-01T10:51:25.862Z</time></trkpt><trkpt lat="40.81965586634754" lon="8.612728920584864"><ele>23.5</ele><time>2026-05-01T10:51:26.862Z</time></trkpt><trkpt lat="40.81963414496143" lon="8.612640801341108"><ele>23.0</ele><time>2026-05-01T10:51:27.862Z</time></trkpt><trkpt lat="40.81960650971422" lon="8.612537739088127"><ele>22.5</ele><time>2026-05-01T10:51:28.862Z</time></trkpt><trkpt lat="40.81958039006457" lon="8.612437067179664"><ele>22.0</ele><time>2026-05-01T10:51:29.862Z</time></trkpt><trkpt lat="40.81955622600545" lon="8.612340542739606"><ele>21.5</ele><time>2026-05-01T10:51:30.862Z</time></trkpt><trkpt lat="40.819526927349635" lon="8.612244156016605"><ele>21.0</ele><time>2026-05-01T10:51:31.862Z</time></trkpt><trkpt lat="40.81949245004951" lon="8.612152036694342"><ele>21.0</ele><time>2026-05-01T10:51:32.862Z</time></trkpt><trkpt lat="40.81944314675324" lon="8.61206964713859"><ele>21.0</ele><time>2026-05-01T10:51:33.862Z</time></trkpt><trkpt lat="40.81940212245735" lon="8.611984724515128"><ele>21.0</ele><time>2026-05-01T10:51:34.862Z</time></trkpt><trkpt lat="40.81934516525391" lon="8.611928146141734"><ele>21.0</ele><time>2026-05-01T10:51:35.862Z</time></trkpt><trkpt lat="40.819277259080465" lon="8.611889665399444"><ele>21.0</ele><time>2026-05-01T10:51:36.862Z</time></trkpt><trkpt lat="40.819221589413296" lon="8.611830975471232"><ele>21.0</ele><time>2026-05-01T10:51:37.862Z</time></trkpt><trkpt lat="40.81913932259888" lon="8.611739966608397"><ele>20.833333333333332</ele><time>2026-05-01T10:51:39.862Z</time></trkpt><trkpt lat="40.81905215192349" lon="8.611704954242306"><ele>20.666666666666668</ele><time>2026-05-01T10:51:42.862Z</time></trkpt><trkpt lat="40.81899752144301" lon="8.611661256821336"><ele>20.5</ele><time>2026-05-01T10:51:45.86Z</time></trkpt><trkpt lat="40.818922063119366" lon="8.611586920551606"><ele>20.333333333333336</ele><time>2026-05-01T10:51:48.859Z</time></trkpt><trkpt lat="40.81886980371876" lon="8.611495758026408"><ele>20.166666666666668</ele><time>2026-05-01T10:51:50.86Z</time></trkpt><trkpt lat="40.81880718806364" lon="8.611425234778205"><ele>20.0</ele><time>2026-05-01T10:51:53.86Z</time></trkpt><trkpt lat="40.818729641520164" lon="8.611353840519596"><ele>20.0</ele><time>2026-05-01T10:52:47.86Z</time></trkpt><trkpt lat="40.8186405825358" lon="8.611264246894072"><ele>20.0</ele><time>2026-05-01T10:52:49.86Z</time></trkpt><trkpt lat="40.81857521796306" lon="8.611115401908664"><ele>20.0</ele><time>2026-05-01T10:52:51.86Z</time></trkpt><trkpt lat="40.81852004751167" lon="8.61102422134471"><ele>20.0</ele><time>2026-05-01T10:52:52.86Z</time></trkpt><trkpt lat="40.818463383910455" lon="8.610943157551329"><ele>20.0</ele><time>2026-05-01T10:52:53.86Z</time></trkpt><trkpt lat="40.81841448372069" lon="8.6108405034394"><ele>21.0</ele><time>2026-05-01T10:52:54.86Z</time></trkpt><trkpt lat="40.81836991572038" lon="8.610732849198104"><ele>22.0</ele><time>2026-05-01T10:52:55.86Z</time></trkpt><trkpt lat="40.81834246843329" lon="8.610624171819365"><ele>23.0</ele><time>2026-05-01T10:52:56.86Z</time></trkpt><trkpt lat="40.818319079521004" lon="8.610507248427973"><ele>24.0</ele><time>2026-05-01T10:52:57.86Z</time></trkpt><trkpt lat="40.81827839773406" lon="8.610401447075299"><ele>25.0</ele><time>2026-05-01T10:52:58.86Z</time></trkpt><trkpt lat="40.81824029234518" lon="8.610283622912613"><ele>25.666666666666668</ele><time>2026-05-01T10:52:59.86Z</time></trkpt><trkpt lat="40.81820566964337" lon="8.610161950059496"><ele>26.333333333333336</ele><time>2026-05-01T10:53:00.86Z</time></trkpt><trkpt lat="40.818174163511436" lon="8.610058461085377"><ele>27.0</ele><time>2026-05-01T10:53:01.86Z</time></trkpt><trkpt lat="40.818153872038344" lon="8.609965352906514"><ele>27.666666666666664</ele><time>2026-05-01T10:53:02.86Z</time></trkpt><trkpt lat="40.818094318411674" lon="8.609879005010974"><ele>28.333333333333332</ele><time>2026-05-01T10:53:03.86Z</time></trkpt><trkpt lat="40.81801318751292" lon="8.609806807546803"><ele>29.0</ele><time>2026-05-01T10:53:04.86Z</time></trkpt><trkpt lat="40.81793558691263" lon="8.60972932599422"><ele>29.0</ele><time>2026-05-01T10:53:05.86Z</time></trkpt><trkpt lat="40.81785883318321" lon="8.609649005835305"><ele>29.0</ele><time>2026-05-01T10:53:06.86Z</time></trkpt><trkpt lat="40.81777604600837" lon="8.609557284934635"><ele>29.0</ele><time>2026-05-01T10:53:07.86Z</time></trkpt><trkpt lat="40.81769463381476" lon="8.609462877866566"><ele>29.0</ele><time>2026-05-01T10:53:08.86Z</time></trkpt><trkpt lat="40.81761866159264" lon="8.609365758041864"><ele>29.0</ele><time>2026-05-01T10:53:09.86Z</time></trkpt><trkpt lat="40.817550773679855" lon="8.609268014779058"><ele>31.4</ele><time>2026-05-01T10:53:10.86Z</time></trkpt><trkpt lat="40.817489201797564" lon="8.609164037201442"><ele>33.8</ele><time>2026-05-01T10:53:11.86Z</time></trkpt><trkpt lat="40.81742956764172" lon="8.609057341074829"><ele>36.199999999999996</ele><time>2026-05-01T10:53:12.86Z</time></trkpt><trkpt lat="40.81735565485197" lon="8.608956611331527"><ele>38.599999999999994</ele><time>2026-05-01T10:53:13.86Z</time></trkpt><trkpt lat="40.81726719949012" lon="8.60888005409697"><ele>41.0</ele><time>2026-05-01T10:53:14.86Z</time></trkpt><trkpt lat="40.81719171266595" lon="8.6087802140284"><ele>41.0</ele><time>2026-05-01T10:53:15.86Z</time></trkpt><trkpt lat="40.81712592495982" lon="8.608665626909518"><ele>41.0</ele><time>2026-05-01T10:53:16.86Z</time></trkpt><trkpt lat="40.81703121274245" lon="8.608594231034193"><ele>41.0</ele><time>2026-05-01T10:53:17.86Z</time></trkpt><trkpt lat="40.816956510008275" lon="8.60850090694654"><ele>41.0</ele><time>2026-05-01T10:53:18.86Z</time></trkpt><trkpt lat="40.81687695814568" lon="8.608425334393838"><ele>41.0</ele><time>2026-05-01T10:53:19.86Z</time></trkpt><trkpt lat="40.81679906027306" lon="8.608354649514013"><ele>43.599999999999994</ele><time>2026-05-01T10:53:20.86Z</time></trkpt><trkpt lat="40.81672405373597" lon="8.608268085131378"><ele>46.2</ele><time>2026-05-01T10:53:21.86Z</time></trkpt><trkpt lat="40.81665492424186" lon="8.608170932295724"><ele>48.800000000000004</ele><time>2026-05-01T10:53:22.86Z</time></trkpt><trkpt lat="40.81659218528473" lon="8.60807130498203"><ele>51.400000000000006</ele><time>2026-05-01T10:53:23.86Z</time></trkpt><trkpt lat="40.81653161899427" lon="8.607958958792292"><ele>54.0</ele><time>2026-05-01T10:53:24.86Z</time></trkpt><trkpt lat="40.8164863097162" lon="8.607849753092301"><ele>54.333333333333336</ele><time>2026-05-01T10:53:25.86Z</time></trkpt><trkpt lat="40.816457499172486" lon="8.60775408341294"><ele>54.66666666666667</ele><time>2026-05-01T10:53:26.86Z</time></trkpt><trkpt lat="40.816446627753415" lon="8.60767034089133"><ele>55.0</ele><time>2026-05-01T10:53:27.86Z</time></trkpt><trkpt lat="40.8164458929034" lon="8.6075754548268"><ele>55.333333333333336</ele><time>2026-05-01T10:53:28.86Z</time></trkpt><trkpt lat="40.81645154106371" lon="8.60746112599964"><ele>55.66666666666667</ele><time>2026-05-01T10:53:29.86Z</time></trkpt><trkpt lat="40.816446641881626" lon="8.607342060920137"><ele>56.0</ele><time>2026-05-01T10:53:30.86Z</time></trkpt><trkpt lat="40.81644771799061" lon="8.607212594455673"><ele>56.0</ele><time>2026-05-01T10:53:31.86Z</time></trkpt><trkpt lat="40.816424897724545" lon="8.607083284281591"><ele>55.99999999999999</ele><time>2026-05-01T10:53:32.86Z</time></trkpt><trkpt lat="40.81643020214061" lon="8.606967533635165"><ele>55.99999999999999</ele><time>2026-05-01T10:53:33.86Z</time></trkpt><trkpt lat="40.816450397797134" lon="8.606859662961638"><ele>56.0</ele><time>2026-05-01T10:53:34.86Z</time></trkpt><trkpt lat="40.81649012350115" lon="8.606748952654803"><ele>56.0</ele><time>2026-05-01T10:53:35.86Z</time></trkpt><trkpt lat="40.81653656319654" lon="8.606634943515218"><ele>55.66666666666667</ele><time>2026-05-01T10:53:36.86Z</time></trkpt><trkpt lat="40.816595449150796" lon="8.606531194497956"><ele>55.333333333333336</ele><time>2026-05-01T10:53:37.86Z</time></trkpt><trkpt lat="40.81663932942216" lon="8.606437186049142"><ele>55.0</ele><time>2026-05-01T10:53:38.86Z</time></trkpt><trkpt lat="40.81667105947319" lon="8.60636127727158"><ele>54.66666666666667</ele><time>2026-05-01T10:53:39.86Z</time></trkpt><trkpt lat="40.81671431241212" lon="8.606233212579726"><ele>54.333333333333336</ele><time>2026-05-01T10:53:41.86Z</time></trkpt><trkpt lat="40.8167780897395" lon="8.606200753889675"><ele>54.0</ele><time>2026-05-01T10:53:42.86Z</time></trkpt><trkpt lat="40.81689847336859" lon="8.606082643691915"><ele>53.0</ele><time>2026-05-01T10:53:44.86Z</time></trkpt><trkpt lat="40.816973328681584" lon="8.606013950527439"><ele>52.0</ele><time>2026-05-01T10:53:45.86Z</time></trkpt><trkpt lat="40.81704679555122" lon="8.605956967967225"><ele>51.0</ele><time>2026-05-01T10:53:46.86Z</time></trkpt><trkpt lat="40.817099424070946" lon="8.60589737574659"><ele>50.0</ele><time>2026-05-01T10:53:47.86Z</time></trkpt><trkpt lat="40.81714524527261" lon="8.605818278136082"><ele>49.0</ele><time>2026-05-01T10:53:48.86Z</time></trkpt><trkpt lat="40.817196957656435" lon="8.60572205042144"><ele>48.0</ele><time>2026-05-01T10:53:49.861Z</time></trkpt><trkpt lat="40.81725982664282" lon="8.605651681462131"><ele>48.0</ele><time>2026-05-01T10:53:51Z</time></trkpt><trkpt lat="40.81730747056402" lon="8.605596869952796"><ele>48.0</ele><time>2026-05-01T10:53:52Z</time></trkpt><trkpt lat="40.8174343265318" lon="8.605527410874734"><ele>48.0</ele><time>2026-05-01T10:53:54Z</time></trkpt><trkpt lat="40.817526893081556" lon="8.60550989900467"><ele>48.0</ele><time>2026-05-01T10:53:55Z</time></trkpt><trkpt lat="40.8176115458564" lon="8.605493809699047"><ele>48.0</ele><time>2026-05-01T10:53:56Z</time></trkpt><trkpt lat="40.817679123679994" lon="8.605463753389285"><ele>47.666666666666664</ele><time>2026-05-01T10:53:57Z</time></trkpt><trkpt lat="40.81774583688286" lon="8.605363139471818"><ele>47.333333333333336</ele><time>2026-05-01T10:53:59Z</time></trkpt><trkpt lat="40.817726763687894" lon="8.605281109166008"><ele>47.0</ele><time>2026-05-01T10:54:01Z</time></trkpt><trkpt lat="40.817659819411595" lon="8.60519559247045"><ele>46.66666666666667</ele><time>2026-05-01T10:54:03Z</time></trkpt><trkpt lat="40.8175967837047" lon="8.605094243802085"><ele>46.333333333333336</ele><time>2026-05-01T10:54:05Z</time></trkpt><trkpt lat="40.81753220364609" lon="8.605015520926724"><ele>46.0</ele><time>2026-05-01T10:54:08.001Z</time></trkpt><trkpt lat="40.8174586377316" lon="8.604883600017333"><ele>47.199999999999996</ele><time>2026-05-01T10:54:10.001Z</time></trkpt><trkpt lat="40.817384235275725" lon="8.604775909778208"><ele>48.4</ele><time>2026-05-01T10:54:11.001Z</time></trkpt><trkpt lat="40.817302585283315" lon="8.604669606795118"><ele>49.6</ele><time>2026-05-01T10:54:12.001Z</time></trkpt><trkpt lat="40.817235431210655" lon="8.604566304910884"><ele>50.8</ele><time>2026-05-01T10:54:13.001Z</time></trkpt><trkpt lat="40.81720659490846" lon="8.604477944149151"><ele>52.0</ele><time>2026-05-01T10:54:14.001Z</time></trkpt><trkpt lat="40.81719054431929" lon="8.604379222144928"><ele>52.666666666666664</ele><time>2026-05-01T10:54:15.001Z</time></trkpt><trkpt lat="40.8171730498374" lon="8.604272786052501"><ele>53.33333333333333</ele><time>2026-05-01T10:54:16.001Z</time></trkpt><trkpt lat="40.81713385170633" lon="8.60417575771431"><ele>54.0</ele><time>2026-05-01T10:54:17.001Z</time></trkpt><trkpt lat="40.8171014261497" lon="8.604078428207249"><ele>54.66666666666667</ele><time>2026-05-01T10:54:18.001Z</time></trkpt><trkpt lat="40.817081794263075" lon="8.603976851727424"><ele>55.333333333333336</ele><time>2026-05-01T10:54:19.001Z</time></trkpt><trkpt lat="40.81704740281225" lon="8.603881328000426"><ele>56.0</ele><time>2026-05-01T10:54:20.001Z</time></trkpt><trkpt lat="40.81702514898292" lon="8.603795116074345"><ele>56.4</ele><time>2026-05-01T10:54:21.001Z</time></trkpt><trkpt lat="40.81704298052724" lon="8.603642542486773"><ele>56.8</ele><time>2026-05-01T10:54:23.001Z</time></trkpt><trkpt lat="40.81707638319278" lon="8.603568065778264"><ele>57.199999999999996</ele><time>2026-05-01T10:54:24.001Z</time></trkpt><trkpt lat="40.8171203092023" lon="8.603481771549488"><ele>57.599999999999994</ele><time>2026-05-01T10:54:25.001Z</time></trkpt><trkpt lat="40.817159148454216" lon="8.603373958599292"><ele>58.0</ele><time>2026-05-01T10:54:26.001Z</time></trkpt><trkpt lat="40.81722632072123" lon="8.60327695609941"><ele>57.99999999999999</ele><time>2026-05-01T10:54:27.001Z</time></trkpt><trkpt lat="40.81726750783702" lon="8.603147386965166"><ele>58.0</ele><time>2026-05-01T10:54:28.001Z</time></trkpt><trkpt lat="40.81730815555101" lon="8.603037407048499"><ele>58.0</ele><time>2026-05-01T10:54:29.001Z</time></trkpt><trkpt lat="40.81735024189411" lon="8.602934006826437"><ele>58.0</ele><time>2026-05-01T10:54:30.001Z</time></trkpt><trkpt lat="40.81739301589664" lon="8.602849420106192"><ele>57.99999999999999</ele><time>2026-05-01T10:54:31.001Z</time></trkpt><trkpt lat="40.81742548778416" lon="8.602765131544828"><ele>58.0</ele><time>2026-05-01T10:54:32.001Z</time></trkpt><trkpt lat="40.81745834405244" lon="8.6026568304935"><ele>57.99999999999999</ele><time>2026-05-01T10:54:33.001Z</time></trkpt><trkpt lat="40.81748402420126" lon="8.602548632061751"><ele>58.0</ele><time>2026-05-01T10:54:34.001Z</time></trkpt><trkpt lat="40.81750896922673" lon="8.602439816264365"><ele>58.0</ele><time>2026-05-01T10:54:35.001Z</time></trkpt><trkpt lat="40.817535844054895" lon="8.602348678422912"><ele>58.0</ele><time>2026-05-01T10:54:36.002Z</time></trkpt><trkpt lat="40.81756016342795" lon="8.602262774961073"><ele>57.99999999999999</ele><time>2026-05-01T10:54:37.002Z</time></trkpt><trkpt lat="40.817660858875676" lon="8.602231805531368"><ele>58.0</ele><time>2026-05-01T10:54:39.002Z</time></trkpt><trkpt lat="40.817753492704526" lon="8.602289889505528"><ele>56.99999999999999</ele><time>2026-05-01T10:54:41.002Z</time></trkpt><trkpt lat="40.81785804705824" lon="8.60236382151557"><ele>56.0</ele><time>2026-05-01T10:54:43.002Z</time></trkpt><trkpt lat="40.81792075070342" lon="8.602395905749987"><ele>55.0</ele><time>2026-05-01T10:54:44.002Z</time></trkpt><trkpt lat="40.81801984754691" lon="8.602360836685166"><ele>54.0</ele><time>2026-05-01T10:54:46.002Z</time></trkpt><trkpt lat="40.81806615560815" lon="8.602297809648478"><ele>52.99999999999999</ele><time>2026-05-01T10:54:47.002Z</time></trkpt><trkpt lat="40.81813118548374" lon="8.602226642192388"><ele>52.0</ele><time>2026-05-01T10:54:48.002Z</time></trkpt><trkpt lat="40.81819470843589" lon="8.60213098166857"><ele>52.0</ele><time>2026-05-01T10:54:49.002Z</time></trkpt><trkpt lat="40.818255933366544" lon="8.602032588486693"><ele>52.0</ele><time>2026-05-01T10:54:50.002Z</time></trkpt><trkpt lat="40.81831388954332" lon="8.601936065827111"><ele>52.0</ele><time>2026-05-01T10:54:51.002Z</time></trkpt><trkpt lat="40.81837881689215" lon="8.601852030088727"><ele>52.0</ele><time>2026-05-01T10:54:52.002Z</time></trkpt><trkpt lat="40.818437702510195" lon="8.601766194851715"><ele>52.0</ele><time>2026-05-01T10:54:53.002Z</time></trkpt><trkpt lat="40.81850169304309" lon="8.601671398333979"><ele>51.8</ele><time>2026-05-01T10:54:54.002Z</time></trkpt><trkpt lat="40.8185683270024" lon="8.601565380767587"><ele>51.6</ele><time>2026-05-01T10:54:55.002Z</time></trkpt><trkpt lat="40.81863312348204" lon="8.601468480295503"><ele>51.4</ele><time>2026-05-01T10:54:56.002Z</time></trkpt><trkpt lat="40.81870203485203" lon="8.60137306963163"><ele>51.199999999999996</ele><time>2026-05-01T10:54:57.002Z</time></trkpt><trkpt lat="40.81876785532485" lon="8.601270366180536"><ele>51.0</ele><time>2026-05-01T10:54:58.002Z</time></trkpt><trkpt lat="40.81882697430456" lon="8.601178119485393"><ele>51.333333333333336</ele><time>2026-05-01T10:54:59.002Z</time></trkpt><trkpt lat="40.81888783314856" lon="8.601097719741206"><ele>51.66666666666667</ele><time>2026-05-01T10:55:00.002Z</time></trkpt><trkpt lat="40.81895185070527" lon="8.601011927611543"><ele>52.0</ele><time>2026-05-01T10:55:01.002Z</time></trkpt><trkpt lat="40.81901462220796" lon="8.600924050543346"><ele>52.333333333333336</ele><time>2026-05-01T10:55:02.002Z</time></trkpt><trkpt lat="40.819058267061195" lon="8.600838461097872"><ele>52.66666666666667</ele><time>2026-05-01T10:55:03.002Z</time></trkpt><trkpt lat="40.81908569980721" lon="8.600755335718125"><ele>53.0</ele><time>2026-05-01T10:55:04.002Z</time></trkpt><trkpt lat="40.819126366688614" lon="8.600632067612555"><ele>53.0</ele><time>2026-05-01T10:55:06.002Z</time></trkpt><trkpt lat="40.81902758779532" lon="8.600487605098145"><ele>53.0</ele><time>2026-05-01T10:55:08.002Z</time></trkpt><trkpt lat="40.81898543262116" lon="8.600415144364014"><ele>53.0</ele><time>2026-05-01T10:55:09.003Z</time></trkpt><trkpt lat="40.818934704733095" lon="8.600317188457069"><ele>53.0</ele><time>2026-05-01T10:55:10.003Z</time></trkpt><trkpt lat="40.81888486910786" lon="8.600205904375171"><ele>53.0</ele><time>2026-05-01T10:55:11.003Z</time></trkpt><trkpt lat="40.81884658334023" lon="8.60009233697591"><ele>53.4</ele><time>2026-05-01T10:55:12.003Z</time></trkpt><trkpt lat="40.8188216449575" lon="8.599984360940743"><ele>53.8</ele><time>2026-05-01T10:55:13.003Z</time></trkpt><trkpt lat="40.818837879347925" lon="8.599842275605612"><ele>54.2</ele><time>2026-05-01T10:55:15.003Z</time></trkpt><trkpt lat="40.81891851374589" lon="8.599745483988563"><ele>54.6</ele><time>2026-05-01T10:55:17.003Z</time></trkpt><trkpt lat="40.818982341049285" lon="8.599683407845808"><ele>55.0</ele><time>2026-05-01T10:55:18.003Z</time></trkpt><trkpt lat="40.81905590279886" lon="8.599621561244488"><ele>55.0</ele><time>2026-05-01T10:55:19.003Z</time></trkpt><trkpt lat="40.81914349479944" lon="8.59954801977481"><ele>55.0</ele><time>2026-05-01T10:55:20.003Z</time></trkpt><trkpt lat="40.81923726960829" lon="8.599453101737573"><ele>55.0</ele><time>2026-05-01T10:55:21.003Z</time></trkpt><trkpt lat="40.819329224211934" lon="8.599345032410103"><ele>55.0</ele><time>2026-05-01T10:55:22.003Z</time></trkpt><trkpt lat="40.81943465373126" lon="8.599215542707425"><ele>54.25</ele><time>2026-05-01T10:55:23.003Z</time></trkpt><trkpt lat="40.8195392942438" lon="8.599084959176013"><ele>53.5</ele><time>2026-05-01T10:55:24.003Z</time></trkpt><trkpt lat="40.819634212990444" lon="8.598975863674651"><ele>52.75</ele><time>2026-05-01T10:55:25.003Z</time></trkpt><trkpt lat="40.81972395969466" lon="8.59886181909582"><ele>52.0</ele><time>2026-05-01T10:55:26.003Z</time></trkpt><trkpt lat="40.81981505380772" lon="8.598745430514764"><ele>52.0</ele><time>2026-05-01T10:55:27.003Z</time></trkpt><trkpt lat="40.8199031988604" lon="8.598623398460116"><ele>52.0</ele><time>2026-05-01T10:55:28.003Z</time></trkpt><trkpt lat="40.81999601928968" lon="8.598493031643137"><ele>52.0</ele><time>2026-05-01T10:55:29.003Z</time></trkpt><trkpt lat="40.82009068489511" lon="8.598367731544656"><ele>52.0</ele><time>2026-05-01T10:55:30.003Z</time></trkpt><trkpt lat="40.8201867156585" lon="8.598243902863913"><ele>52.0</ele><time>2026-05-01T10:55:31.003Z</time></trkpt><trkpt lat="40.82028458120725" lon="8.598128643959779"><ele>52.0</ele><time>2026-05-01T10:55:32.003Z</time></trkpt><trkpt lat="40.820377578785674" lon="8.598007484725677"><ele>52.0</ele><time>2026-05-01T10:55:33.003Z</time></trkpt><trkpt lat="40.82047106380426" lon="8.597889265254025"><ele>52.0</ele><time>2026-05-01T10:55:34.003Z</time></trkpt><trkpt lat="40.82056981537728" lon="8.597773946501741"><ele>52.0</ele><time>2026-05-01T10:55:35.003Z</time></trkpt><trkpt lat="40.82067913573899" lon="8.597669076642848"><ele>52.0</ele><time>2026-05-01T10:55:36.003Z</time></trkpt><trkpt lat="40.82079472343672" lon="8.597564730105992"><ele>52.0</ele><time>2026-05-01T10:55:37.003Z</time></trkpt><trkpt lat="40.8209011199208" lon="8.597462803897615"><ele>52.0</ele><time>2026-05-01T10:55:38.003Z</time></trkpt><trkpt lat="40.82099351240374" lon="8.597357407169936"><ele>51.25</ele><time>2026-05-01T10:55:39.003Z</time></trkpt><trkpt lat="40.8210838975361" lon="8.597251301641053"><ele>50.5</ele><time>2026-05-01T10:55:40.003Z</time></trkpt><trkpt lat="40.82117260874812" lon="8.597134739742849"><ele>49.75</ele><time>2026-05-01T10:55:41.003Z</time></trkpt><trkpt lat="40.821267306605435" lon="8.597013910974935"><ele>49.0</ele><time>2026-05-01T10:55:42.004Z</time></trkpt><trkpt lat="40.82135141862583" lon="8.596901981333541"><ele>49.0</ele><time>2026-05-01T10:55:43.004Z</time></trkpt><trkpt lat="40.82143672128005" lon="8.596789066816005"><ele>49.0</ele><time>2026-05-01T10:55:44.004Z</time></trkpt><trkpt lat="40.821511444578796" lon="8.596688986521563"><ele>49.0</ele><time>2026-05-01T10:55:45.004Z</time></trkpt><trkpt lat="40.82158810731894" lon="8.596587736593095"><ele>49.0</ele><time>2026-05-01T10:55:46.004Z</time></trkpt><trkpt lat="40.82165633463855" lon="8.59649146774929"><ele>49.0</ele><time>2026-05-01T10:55:47.004Z</time></trkpt><trkpt lat="40.82172116594434" lon="8.596404289864118"><ele>49.0</ele><time>2026-05-01T10:55:48.004Z</time></trkpt><trkpt lat="40.82178433532222" lon="8.596311351421225"><ele>49.0</ele><time>2026-05-01T10:55:49.004Z</time></trkpt><trkpt lat="40.821844856798045" lon="8.596200716009758"><ele>49.0</ele><time>2026-05-01T10:55:50.004Z</time></trkpt><trkpt lat="40.8219185211801" lon="8.59608370663217"><ele>49.0</ele><time>2026-05-01T10:55:51.004Z</time></trkpt><trkpt lat="40.82200256564061" lon="8.595968941740637"><ele>49.0</ele><time>2026-05-01T10:55:52.004Z</time></trkpt><trkpt lat="40.82208650243253" lon="8.595856891377032"><ele>48.75</ele><time>2026-05-01T10:55:53.004Z</time></trkpt><trkpt lat="40.822170003115794" lon="8.59574224639709"><ele>48.5</ele><time>2026-05-01T10:55:54.004Z</time></trkpt><trkpt lat="40.82225275090669" lon="8.59562287870449"><ele>48.25</ele><time>2026-05-01T10:55:55.004Z</time></trkpt><trkpt lat="40.82233860213049" lon="8.595502262829438"><ele>48.0</ele><time>2026-05-01T10:55:56.004Z</time></trkpt><trkpt lat="40.82242414117409" lon="8.595374238826082"><ele>48.0</ele><time>2026-05-01T10:55:57.001Z</time></trkpt><trkpt lat="40.82251281858623" lon="8.595240571440275"><ele>48.0</ele><time>2026-05-01T10:55:58.001Z</time></trkpt><trkpt lat="40.82259878708429" lon="8.595101187680495"><ele>48.0</ele><time>2026-05-01T10:55:59.001Z</time></trkpt><trkpt lat="40.822679014626395" lon="8.594957994422357"><ele>48.0</ele><time>2026-05-01T10:56:00.001Z</time></trkpt><trkpt lat="40.82276147675934" lon="8.594808070721147"><ele>48.0</ele><time>2026-05-01T10:56:01.001Z</time></trkpt><trkpt lat="40.82283293921039" lon="8.59468110261328"><ele>48.0</ele><time>2026-05-01T10:56:02.001Z</time></trkpt><trkpt lat="40.82291110759696" lon="8.594538427051232"><ele>48.0</ele><time>2026-05-01T10:56:03.001Z</time></trkpt><trkpt lat="40.82299186338424" lon="8.594402817098246"><ele>48.0</ele><time>2026-05-01T10:56:04.001Z</time></trkpt><trkpt lat="40.8230723448931" lon="8.594272781262687"><ele>47.4</ele><time>2026-05-01T10:56:05.001Z</time></trkpt><trkpt lat="40.823141840330265" lon="8.594158967079391"><ele>46.8</ele><time>2026-05-01T10:56:06.001Z</time></trkpt><trkpt lat="40.82320809716405" lon="8.594051912626698"><ele>46.2</ele><time>2026-05-01T10:56:07.001Z</time></trkpt><trkpt lat="40.82327311354501" lon="8.593945533825071"><ele>45.6</ele><time>2026-05-01T10:56:08.001Z</time></trkpt><trkpt lat="40.82332061422971" lon="8.593831076843866"><ele>45.0</ele><time>2026-05-01T10:56:09.001Z</time></trkpt><trkpt lat="40.82335592690899" lon="8.593700617184167"><ele>44.666666666666664</ele><time>2026-05-01T10:56:10.001Z</time></trkpt><trkpt lat="40.82337934445755" lon="8.593565359845625"><ele>44.333333333333336</ele><time>2026-05-01T10:56:11.001Z</time></trkpt><trkpt lat="40.82339663400639" lon="8.593426915529935"><ele>44.0</ele><time>2026-05-01T10:56:12.001Z</time></trkpt><trkpt lat="40.82342163041569" lon="8.593311347582203"><ele>43.66666666666667</ele><time>2026-05-01T10:56:13.001Z</time></trkpt><trkpt lat="40.82344749667067" lon="8.593228107568805"><ele>43.333333333333336</ele><time>2026-05-01T10:56:14.001Z</time></trkpt><trkpt lat="40.82347677496356" lon="8.593149512757305"><ele>43.0</ele><time>2026-05-01T10:56:15.001Z</time></trkpt><trkpt lat="40.823516310360674" lon="8.593073262493998"><ele>42.16666666666667</ele><time>2026-05-01T10:56:16.001Z</time></trkpt><trkpt lat="40.82356678322133" lon="8.59299766613878"><ele>41.333333333333336</ele><time>2026-05-01T10:56:17.001Z</time></trkpt><trkpt lat="40.82363683933536" lon="8.592959578496643"><ele>40.5</ele><time>2026-05-01T10:56:18.001Z</time></trkpt><trkpt lat="40.82371182542057" lon="8.592911816440933"><ele>39.666666666666664</ele><time>2026-05-01T10:56:19.001Z</time></trkpt><trkpt lat="40.82379294680432" lon="8.592868474771917"><ele>38.83333333333333</ele><time>2026-05-01T10:56:20.001Z</time></trkpt><trkpt lat="40.82386958755571" lon="8.592839017493466"><ele>38.0</ele><time>2026-05-01T10:56:21.001Z</time></trkpt><trkpt lat="40.823942391168565" lon="8.59280595750088"><ele>37.83333333333333</ele><time>2026-05-01T10:56:22.001Z</time></trkpt><trkpt lat="40.82400011384846" lon="8.592755490785"><ele>37.666666666666664</ele><time>2026-05-01T10:56:23.001Z</time></trkpt><trkpt lat="40.82407362155439" lon="8.592753341914493"><ele>37.5</ele><time>2026-05-01T10:56:25.001Z</time></trkpt><trkpt lat="40.82414452146412" lon="8.592695198457566"><ele>37.333333333333336</ele><time>2026-05-01T10:56:39.001Z</time></trkpt><trkpt lat="40.824206266874015" lon="8.592670279602116"><ele>37.16666666666667</ele><time>2026-05-01T10:56:40.001Z</time></trkpt><trkpt lat="40.82425416247803" lon="8.592596310858589"><ele>37.0</ele><time>2026-05-01T10:56:41.001Z</time></trkpt><trkpt lat="40.82429738434084" lon="8.592458470744706"><ele>37.0</ele><time>2026-05-01T10:56:43.001Z</time></trkpt><trkpt lat="40.82428139561541" lon="8.592287504444924"><ele>37.0</ele><time>2026-05-01T10:56:45.001Z</time></trkpt><trkpt lat="40.82425091655381" lon="8.592164379130946"><ele>37.0</ele><time>2026-05-01T10:56:46.001Z</time></trkpt><trkpt lat="40.8242156902264" lon="8.592030588682633"><ele>37.0</ele><time>2026-05-01T10:56:47.001Z</time></trkpt><trkpt lat="40.82418234585965" lon="8.591889384755927"><ele>37.0</ele><time>2026-05-01T10:56:48.001Z</time></trkpt><trkpt lat="40.82414342069896" lon="8.591741121033849"><ele>37.0</ele><time>2026-05-01T10:56:49.001Z</time></trkpt><trkpt lat="40.82410720398456" lon="8.59158339467775"><ele>37.0</ele><time>2026-05-01T10:56:50.001Z</time></trkpt><trkpt lat="40.824069217115834" lon="8.591427205190241"><ele>37.0</ele><time>2026-05-01T10:56:51.002Z</time></trkpt><trkpt lat="40.82403219943592" lon="8.591271066946364"><ele>37.0</ele><time>2026-05-01T10:56:52.002Z</time></trkpt><trkpt lat="40.82399281169611" lon="8.591110972579928"><ele>36.75</ele><time>2026-05-01T10:56:53.002Z</time></trkpt><trkpt lat="40.82395515864799" lon="8.590942696440376"><ele>36.5</ele><time>2026-05-01T10:56:54.002Z</time></trkpt><trkpt lat="40.82391564084487" lon="8.590771210406023"><ele>36.25</ele><time>2026-05-01T10:56:55.002Z</time></trkpt><trkpt lat="40.82387227007922" lon="8.590585754050771"><ele>36.0</ele><time>2026-05-01T10:56:56.002Z</time></trkpt><trkpt lat="40.823827908045466" lon="8.590400670186694"><ele>36.0</ele><time>2026-05-01T10:56:57.002Z</time></trkpt><trkpt lat="40.82378594179025" lon="8.590218275333559"><ele>36.0</ele><time>2026-05-01T10:56:58.002Z</time></trkpt><trkpt lat="40.823743725604594" lon="8.590035064686557"><ele>36.0</ele><time>2026-05-01T10:56:59.002Z</time></trkpt><trkpt lat="40.82369718856443" lon="8.58984584172304"><ele>36.0</ele><time>2026-05-01T10:57:00.002Z</time></trkpt><trkpt lat="40.82365306213643" lon="8.589660346471838"><ele>35.5</ele><time>2026-05-01T10:57:01.002Z</time></trkpt><trkpt lat="40.82360932575253" lon="8.58947693215753"><ele>35.0</ele><time>2026-05-01T10:57:02.002Z</time></trkpt><trkpt lat="40.82356972193737" lon="8.589298531418498"><ele>34.5</ele><time>2026-05-01T10:57:03.002Z</time></trkpt><trkpt lat="40.823529340600565" lon="8.589122418849731"><ele>34.0</ele><time>2026-05-01T10:57:04.002Z</time></trkpt><trkpt lat="40.82348593749568" lon="8.588943777250162"><ele>35.0</ele><time>2026-05-01T10:57:05.002Z</time></trkpt><trkpt lat="40.82344612251841" lon="8.588770966096202"><ele>36.0</ele><time>2026-05-01T10:57:06.002Z</time></trkpt><trkpt lat="40.82340318382326" lon="8.588595791707306"><ele>37.0</ele><time>2026-05-01T10:57:07.002Z</time></trkpt><trkpt lat="40.82335967641364" lon="8.588413357793772"><ele>38.0</ele><time>2026-05-01T10:57:08.002Z</time></trkpt><trkpt lat="40.82331987636486" lon="8.588234061653194"><ele>38.0</ele><time>2026-05-01T10:57:09.002Z</time></trkpt><trkpt lat="40.82327477239365" lon="8.588043539026877"><ele>38.0</ele><time>2026-05-01T10:57:10.002Z</time></trkpt><trkpt lat="40.82322618981063" lon="8.587853525675602"><ele>38.0</ele><time>2026-05-01T10:57:11.002Z</time></trkpt><trkpt lat="40.82318184711399" lon="8.587661469037437"><ele>38.0</ele><time>2026-05-01T10:57:12.002Z</time></trkpt><trkpt lat="40.82313358480613" lon="8.58747197057364"><ele>38.0</ele><time>2026-05-01T10:57:13.002Z</time></trkpt><trkpt lat="40.823092506523146" lon="8.587269909836783"><ele>38.0</ele><time>2026-05-01T10:57:14.002Z</time></trkpt><trkpt lat="40.82304835534117" lon="8.587074708061596"><ele>37.666666666666664</ele><time>2026-05-01T10:57:15.002Z</time></trkpt><trkpt lat="40.82300277656776" lon="8.586876608254338"><ele>37.333333333333336</ele><time>2026-05-01T10:57:16.002Z</time></trkpt><trkpt lat="40.82294557993809" lon="8.586653499579647"><ele>37.0</ele><time>2026-05-01T10:57:17.002Z</time></trkpt><trkpt lat="40.822891258439164" lon="8.5864410892401"><ele>37.0</ele><time>2026-05-01T10:57:18.002Z</time></trkpt><trkpt lat="40.82284385142429" lon="8.586225826976344"><ele>37.0</ele><time>2026-05-01T10:57:19.002Z</time></trkpt><trkpt lat="40.82279100134747" lon="8.58600671347805"><ele>37.0</ele><time>2026-05-01T10:57:20.002Z</time></trkpt><trkpt lat="40.822743445615366" lon="8.58578574900199"><ele>36.66666666666667</ele><time>2026-05-01T10:57:21.002Z</time></trkpt><trkpt lat="40.822689741862234" lon="8.585571564056597"><ele>36.333333333333336</ele><time>2026-05-01T10:57:22.002Z</time></trkpt><trkpt lat="40.82264001432875" lon="8.585351933001528"><ele>36.0</ele><time>2026-05-01T10:57:23.002Z</time></trkpt><trkpt lat="40.82258914113718" lon="8.585135389984336"><ele>37.333333333333336</ele><time>2026-05-01T10:57:24.002Z</time></trkpt><trkpt lat="40.82253723592959" lon="8.584915922970845"><ele>38.66666666666667</ele><time>2026-05-01T10:57:25.002Z</time></trkpt><trkpt lat="40.82247693650157" lon="8.584692684975332"><ele>40.0</ele><time>2026-05-01T10:57:26.002Z</time></trkpt><trkpt lat="40.822424533282245" lon="8.58446269126103"><ele>40.0</ele><time>2026-05-01T10:57:27.002Z</time></trkpt><trkpt lat="40.822368769891426" lon="8.584241191731175"><ele>40.0</ele><time>2026-05-01T10:57:28.002Z</time></trkpt><trkpt lat="40.82233888781413" lon="8.584029979030147"><ele>40.0</ele><time>2026-05-01T10:57:29.002Z</time></trkpt><trkpt lat="40.82228994092296" lon="8.583816413504703"><ele>39.66666666666667</ele><time>2026-05-01T10:57:30.002Z</time></trkpt><trkpt lat="40.82224300714859" lon="8.583608988361831"><ele>39.333333333333336</ele><time>2026-05-01T10:57:31.002Z</time></trkpt><trkpt lat="40.82219498863264" lon="8.583395216468334"><ele>39.0</ele><time>2026-05-01T10:57:32.003Z</time></trkpt><trkpt lat="40.82213752472805" lon="8.58317939185797"><ele>39.0</ele><time>2026-05-01T10:57:33.003Z</time></trkpt><trkpt lat="40.82208772232821" lon="8.582967127792923"><ele>39.0</ele><time>2026-05-01T10:57:34.003Z</time></trkpt><trkpt lat="40.82203630260208" lon="8.582752650675815"><ele>39.0</ele><time>2026-05-01T10:57:35.003Z</time></trkpt><trkpt lat="40.8219868666577" lon="8.582541761092775"><ele>39.0</ele><time>2026-05-01T10:57:36.003Z</time></trkpt><trkpt lat="40.82193556300964" lon="8.582332447682079"><ele>39.0</ele><time>2026-05-01T10:57:37.003Z</time></trkpt><trkpt lat="40.82188156495425" lon="8.582120635062436"><ele>39.0</ele><time>2026-05-01T10:57:38.003Z</time></trkpt><trkpt lat="40.82183918299379" lon="8.581914504728447"><ele>39.333333333333336</ele><time>2026-05-01T10:57:39.003Z</time></trkpt><trkpt lat="40.82178523387885" lon="8.581701568524728"><ele>39.66666666666667</ele><time>2026-05-01T10:57:40.003Z</time></trkpt><trkpt lat="40.82173961677723" lon="8.581488128774733"><ele>40.0</ele><time>2026-05-01T10:57:41.003Z</time></trkpt><trkpt lat="40.82168646721521" lon="8.581273380857787"><ele>39.66666666666667</ele><time>2026-05-01T10:57:42.003Z</time></trkpt><trkpt lat="40.82163387913489" lon="8.581057152059019"><ele>39.333333333333336</ele><time>2026-05-01T10:57:43.003Z</time></trkpt><trkpt lat="40.82158517029494" lon="8.580843084432036"><ele>39.0</ele><time>2026-05-01T10:57:44.003Z</time></trkpt><trkpt lat="40.82153071661822" lon="8.580625650182963"><ele>39.0</ele><time>2026-05-01T10:57:45.003Z</time></trkpt><trkpt lat="40.821481399232155" lon="8.580407400841667"><ele>39.0</ele><time>2026-05-01T10:57:46.003Z</time></trkpt><trkpt lat="40.82143109917124" lon="8.580191449926541"><ele>39.0</ele><time>2026-05-01T10:57:47.003Z</time></trkpt><trkpt lat="40.821383075485286" lon="8.579972403261456"><ele>38.333333333333336</ele><time>2026-05-01T10:57:48.003Z</time></trkpt><trkpt lat="40.82133159327844" lon="8.579756644273209"><ele>37.66666666666667</ele><time>2026-05-01T10:57:49.003Z</time></trkpt><trkpt lat="40.821278907730196" lon="8.57953405743319"><ele>37.0</ele><time>2026-05-01T10:57:50.003Z</time></trkpt><trkpt lat="40.82121874949661" lon="8.579307096224474"><ele>36.66666666666667</ele><time>2026-05-01T10:57:51.003Z</time></trkpt><trkpt lat="40.82116898411372" lon="8.579084269038965"><ele>36.333333333333336</ele><time>2026-05-01T10:57:52.003Z</time></trkpt><trkpt lat="40.82111801204966" lon="8.57886266384367"><ele>36.0</ele><time>2026-05-01T10:57:53.003Z</time></trkpt><trkpt lat="40.821062920962376" lon="8.57863535328668"><ele>35.666666666666664</ele><time>2026-05-01T10:57:54.003Z</time></trkpt><trkpt lat="40.82100917808478" lon="8.57841228302281"><ele>35.33333333333333</ele><time>2026-05-01T10:57:55.003Z</time></trkpt><trkpt lat="40.82095323517706" lon="8.5781861132848"><ele>35.0</ele><time>2026-05-01T10:57:56.003Z</time></trkpt><trkpt lat="40.820900500075545" lon="8.577963714373043"><ele>35.666666666666664</ele><time>2026-05-01T10:57:57.003Z</time></trkpt><trkpt lat="40.82084609475013" lon="8.57774075163445"><ele>36.333333333333336</ele><time>2026-05-01T10:57:58.003Z</time></trkpt><trkpt lat="40.820797224742286" lon="8.577515342254625"><ele>37.0</ele><time>2026-05-01T10:57:59.003Z</time></trkpt><trkpt lat="40.820745485616335" lon="8.577290630997224"><ele>37.0</ele><time>2026-05-01T10:58:00.003Z</time></trkpt><trkpt lat="40.82068744304789" lon="8.577065133879431"><ele>37.0</ele><time>2026-05-01T10:58:01.003Z</time></trkpt><trkpt lat="40.820635023773576" lon="8.576839869253986"><ele>37.0</ele><time>2026-05-01T10:58:02.003Z</time></trkpt><trkpt lat="40.820583194649586" lon="8.576617263589737"><ele>36.66666666666667</ele><time>2026-05-01T10:58:03Z</time></trkpt><trkpt lat="40.82052875675118" lon="8.57638492736946"><ele>36.333333333333336</ele><time>2026-05-01T10:58:04Z</time></trkpt><trkpt lat="40.82047727926517" lon="8.57615524266595"><ele>36.0</ele><time>2026-05-01T10:58:05Z</time></trkpt><trkpt lat="40.82041846677188" lon="8.575926004526005"><ele>36.0</ele><time>2026-05-01T10:58:06Z</time></trkpt><trkpt lat="40.8203627970789" lon="8.575698678576334"><ele>36.0</ele><time>2026-05-01T10:58:07Z</time></trkpt><trkpt lat="40.820310477503504" lon="8.575472408827034"><ele>36.0</ele><time>2026-05-01T10:58:08.001Z</time></trkpt><trkpt lat="40.82025493420599" lon="8.575247240819746"><ele>35.666666666666664</ele><time>2026-05-01T10:58:09.001Z</time></trkpt><trkpt lat="40.82019785787336" lon="8.575016139403703"><ele>35.33333333333333</ele><time>2026-05-01T10:58:10Z</time></trkpt><trkpt lat="40.82014662892938" lon="8.574784458705382"><ele>35.0</ele><time>2026-05-01T10:58:11.001Z</time></trkpt><trkpt lat="40.82009190804717" lon="8.574550243330723"><ele>36.33333333333333</ele><time>2026-05-01T10:58:12.001Z</time></trkpt><trkpt lat="40.82003921593206" lon="8.574317495747094"><ele>37.666666666666664</ele><time>2026-05-01T10:58:13.001Z</time></trkpt><trkpt lat="40.819979864156956" lon="8.574083881806162"><ele>39.0</ele><time>2026-05-01T10:58:14.001Z</time></trkpt><trkpt lat="40.81992231214623" lon="8.573844499631207"><ele>39.666666666666664</ele><time>2026-05-01T10:58:15.001Z</time></trkpt><trkpt lat="40.81986877052781" lon="8.57361414424235"><ele>40.33333333333333</ele><time>2026-05-01T10:58:16.001Z</time></trkpt><trkpt lat="40.81981425287924" lon="8.573379098272685"><ele>41.0</ele><time>2026-05-01T10:58:17.001Z</time></trkpt><trkpt lat="40.81975503932999" lon="8.57314380500573"><ele>41.0</ele><time>2026-05-01T10:58:18.001Z</time></trkpt><trkpt lat="40.819698474260164" lon="8.572906122795287"><ele>41.0</ele><time>2026-05-01T10:58:19.001Z</time></trkpt><trkpt lat="40.81964259949596" lon="8.572669884428658"><ele>41.0</ele><time>2026-05-01T10:58:20.001Z</time></trkpt><trkpt lat="40.81958614877572" lon="8.5724363335579"><ele>40.33333333333333</ele><time>2026-05-01T10:58:21.001Z</time></trkpt><trkpt lat="40.81953159862607" lon="8.57219690352791"><ele>39.666666666666664</ele><time>2026-05-01T10:58:22.001Z</time></trkpt><trkpt lat="40.81947977787967" lon="8.571967103134508"><ele>39.0</ele><time>2026-05-01T10:58:23.001Z</time></trkpt><trkpt lat="40.81942602296268" lon="8.571736560823378"><ele>39.333333333333336</ele><time>2026-05-01T10:58:24.001Z</time></trkpt><trkpt lat="40.819367845642375" lon="8.571501087342893"><ele>39.66666666666667</ele><time>2026-05-01T10:58:25.001Z</time></trkpt><trkpt lat="40.81930962876758" lon="8.57126476703271"><ele>40.0</ele><time>2026-05-01T10:58:26.001Z</time></trkpt><trkpt lat="40.8192559174874" lon="8.571031078731888"><ele>40.0</ele><time>2026-05-01T10:58:27.001Z</time></trkpt><trkpt lat="40.81920135667991" lon="8.570792806454072"><ele>40.0</ele><time>2026-05-01T10:58:28.001Z</time></trkpt><trkpt lat="40.81914436480976" lon="8.570558044632655"><ele>40.0</ele><time>2026-05-01T10:58:29.001Z</time></trkpt><trkpt lat="40.819092194703735" lon="8.57032430594167"><ele>39.333333333333336</ele><time>2026-05-01T10:58:30.001Z</time></trkpt><trkpt lat="40.81903217983905" lon="8.57008459296454"><ele>38.666666666666664</ele><time>2026-05-01T10:58:31.001Z</time></trkpt><trkpt lat="40.818979065634664" lon="8.569840620769698"><ele>38.0</ele><time>2026-05-01T10:58:32.001Z</time></trkpt><trkpt lat="40.81892376696356" lon="8.569606729989053"><ele>38.0</ele><time>2026-05-01T10:58:33.001Z</time></trkpt><trkpt lat="40.818871679103786" lon="8.569377535758974"><ele>38.0</ele><time>2026-05-01T10:58:34.001Z</time></trkpt><trkpt lat="40.81881377092542" lon="8.569139897492958"><ele>38.0</ele><time>2026-05-01T10:58:35.001Z</time></trkpt><trkpt lat="40.81875747523471" lon="8.56890265492607"><ele>38.0</ele><time>2026-05-01T10:58:36.001Z</time></trkpt><trkpt lat="40.8187055348641" lon="8.568671664106866"><ele>38.0</ele><time>2026-05-01T10:58:37.001Z</time></trkpt><trkpt lat="40.81864685122499" lon="8.568433837410806"><ele>38.0</ele><time>2026-05-01T10:58:38.001Z</time></trkpt><trkpt lat="40.8185906200576" lon="8.568193108353164"><ele>38.0</ele><time>2026-05-01T10:58:39.001Z</time></trkpt><trkpt lat="40.81853183732357" lon="8.567949700948965"><ele>38.0</ele><time>2026-05-01T10:58:40.001Z</time></trkpt><trkpt lat="40.81847723768441" lon="8.567709365505744"><ele>38.0</ele><time>2026-05-01T10:58:41.001Z</time></trkpt><trkpt lat="40.81842390062325" lon="8.56747271222456"><ele>38.0</ele><time>2026-05-01T10:58:42.001Z</time></trkpt><trkpt lat="40.81836612304473" lon="8.567234396325107"><ele>38.0</ele><time>2026-05-01T10:58:43.001Z</time></trkpt><trkpt lat="40.81831158644858" lon="8.566997659797417"><ele>38.0</ele><time>2026-05-01T10:58:44.001Z</time></trkpt><trkpt lat="40.81825637451287" lon="8.566763230728437"><ele>38.0</ele><time>2026-05-01T10:58:45.001Z</time></trkpt><trkpt lat="40.818199828654826" lon="8.566525209586164"><ele>38.0</ele><time>2026-05-01T10:58:46.001Z</time></trkpt><trkpt lat="40.818145130615136" lon="8.566293633290572"><ele>38.0</ele><time>2026-05-01T10:58:47.001Z</time></trkpt><trkpt lat="40.818085910220695" lon="8.566062606614654"><ele>37.666666666666664</ele><time>2026-05-01T10:58:48.001Z</time></trkpt><trkpt lat="40.818030077601705" lon="8.565835143381415"><ele>37.333333333333336</ele><time>2026-05-01T10:58:49.001Z</time></trkpt><trkpt lat="40.817974086810004" lon="8.56560865122873"><ele>37.0</ele><time>2026-05-01T10:58:50.001Z</time></trkpt><trkpt lat="40.81791585071209" lon="8.5653813923988"><ele>37.333333333333336</ele><time>2026-05-01T10:58:51.001Z</time></trkpt><trkpt lat="40.8178611541007" lon="8.56515155057164"><ele>37.666666666666664</ele><time>2026-05-01T10:58:52.001Z</time></trkpt><trkpt lat="40.81780318805695" lon="8.564919831793555"><ele>38.0</ele><time>2026-05-01T10:58:53.001Z</time></trkpt><trkpt lat="40.81774545604318" lon="8.564681135105584"><ele>38.0</ele><time>2026-05-01T10:58:54.001Z</time></trkpt><trkpt lat="40.8176780799692" lon="8.564448330407425"><ele>38.0</ele><time>2026-05-01T10:58:55.002Z</time></trkpt><trkpt lat="40.817616590375195" lon="8.564213428348955"><ele>38.0</ele><time>2026-05-01T10:58:56.002Z</time></trkpt><trkpt lat="40.81755759775605" lon="8.563978013065043"><ele>38.666666666666664</ele><time>2026-05-01T10:58:57.002Z</time></trkpt><trkpt lat="40.81751081707523" lon="8.563743975547673"><ele>39.333333333333336</ele><time>2026-05-01T10:58:58.002Z</time></trkpt><trkpt lat="40.81745302482827" lon="8.563518028412663"><ele>40.0</ele><time>2026-05-01T10:58:59.002Z</time></trkpt><trkpt lat="40.81739581253937" lon="8.563295464997822"><ele>40.0</ele><time>2026-05-01T10:59:00.002Z</time></trkpt><trkpt lat="40.817325380077264" lon="8.563088910737234"><ele>40.0</ele><time>2026-05-01T10:59:01.002Z</time></trkpt><trkpt lat="40.8172980721205" lon="8.562895341655263"><ele>40.0</ele><time>2026-05-01T10:59:02.002Z</time></trkpt><trkpt lat="40.8172459764421" lon="8.5627000741689"><ele>40.0</ele><time>2026-05-01T10:59:03.002Z</time></trkpt><trkpt lat="40.81719782121513" lon="8.562522169350975"><ele>40.0</ele><time>2026-05-01T10:59:04.002Z</time></trkpt><trkpt lat="40.817152244089606" lon="8.562352534502827"><ele>40.0</ele><time>2026-05-01T10:59:05.002Z</time></trkpt><trkpt lat="40.817112064032585" lon="8.562199013626616"><ele>40.0</ele><time>2026-05-01T10:59:06.002Z</time></trkpt><trkpt lat="40.81707944362787" lon="8.562064610860917"><ele>40.16666666666667</ele><time>2026-05-01T10:59:07.002Z</time></trkpt><trkpt lat="40.81706347969537" lon="8.561945255154649"><ele>40.333333333333336</ele><time>2026-05-01T10:59:08.002Z</time></trkpt><trkpt lat="40.81706243444362" lon="8.56184183543217"><ele>40.5</ele><time>2026-05-01T10:59:09.002Z</time></trkpt><trkpt lat="40.81707254295951" lon="8.561736520276558"><ele>40.666666666666664</ele><time>2026-05-01T10:59:10.002Z</time></trkpt><trkpt lat="40.817079739545065" lon="8.561638918476982"><ele>40.83333333333333</ele><time>2026-05-01T10:59:11.002Z</time></trkpt><trkpt lat="40.81706751272975" lon="8.56147788599108"><ele>41.0</ele><time>2026-05-01T10:59:13.002Z</time></trkpt><trkpt lat="40.81696310057281" lon="8.561347333575211"><ele>41.0</ele><time>2026-05-01T10:59:15.002Z</time></trkpt><trkpt lat="40.816898749608875" lon="8.561252535673084"><ele>41.0</ele><time>2026-05-01T10:59:16.002Z</time></trkpt><trkpt lat="40.81683036123085" lon="8.561170541751489"><ele>41.0</ele><time>2026-05-01T10:59:17.002Z</time></trkpt><trkpt lat="40.81681267749112" lon="8.561032705929607"><ele>41.0</ele><time>2026-05-01T10:59:18.002Z</time></trkpt><trkpt lat="40.81678015549495" lon="8.560898200434893"><ele>41.0</ele><time>2026-05-01T10:59:19.002Z</time></trkpt><trkpt lat="40.81673166147159" lon="8.560757889742328"><ele>41.25</ele><time>2026-05-01T10:59:20.002Z</time></trkpt><trkpt lat="40.81669871367095" lon="8.560606417235768"><ele>41.5</ele><time>2026-05-01T10:59:21.002Z</time></trkpt><trkpt lat="40.816661473539284" lon="8.560462497189123"><ele>41.75</ele><time>2026-05-01T10:59:22.002Z</time></trkpt><trkpt lat="40.8166212355777" lon="8.560307826615587"><ele>42.0</ele><time>2026-05-01T10:59:23.002Z</time></trkpt><trkpt lat="40.81658296033355" lon="8.560151946510105"><ele>42.0</ele><time>2026-05-01T10:59:24.002Z</time></trkpt><trkpt lat="40.81654264201383" lon="8.56000443931776"><ele>42.0</ele><time>2026-05-01T10:59:25.002Z</time></trkpt><trkpt lat="40.81650380973531" lon="8.559858758607014"><ele>42.0</ele><time>2026-05-01T10:59:26.002Z</time></trkpt><trkpt lat="40.81646378947606" lon="8.55970385817804"><ele>42.0</ele><time>2026-05-01T10:59:27.002Z</time></trkpt><trkpt lat="40.81642611333907" lon="8.559548799787313"><ele>41.5</ele><time>2026-05-01T10:59:28.002Z</time></trkpt><trkpt lat="40.81638782530938" lon="8.559393899053818"><ele>41.0</ele><time>2026-05-01T10:59:29.002Z</time></trkpt><trkpt lat="40.8163516103979" lon="8.559236800162662"><ele>40.5</ele><time>2026-05-01T10:59:30.002Z</time></trkpt><trkpt lat="40.81631772134277" lon="8.5590747476987"><ele>40.0</ele><time>2026-05-01T10:59:31.002Z</time></trkpt><trkpt lat="40.81627741083885" lon="8.5589094767072"><ele>40.0</ele><time>2026-05-01T10:59:32.002Z</time></trkpt><trkpt lat="40.81623709051245" lon="8.558747242882077"><ele>40.0</ele><time>2026-05-01T10:59:33.002Z</time></trkpt><trkpt lat="40.81619907741422" lon="8.558579385114697"><ele>40.0</ele><time>2026-05-01T10:59:34.003Z</time></trkpt><trkpt lat="40.816153693469595" lon="8.558406924759199"><ele>40.0</ele><time>2026-05-01T10:59:35.003Z</time></trkpt><trkpt lat="40.816113702021006" lon="8.55823702122243"><ele>39.75</ele><time>2026-05-01T10:59:36.003Z</time></trkpt><trkpt lat="40.81606582803204" lon="8.558071472549695"><ele>39.5</ele><time>2026-05-01T10:59:37.003Z</time></trkpt><trkpt lat="40.816025237862135" lon="8.557910502109978"><ele>39.25</ele><time>2026-05-01T10:59:38.003Z</time></trkpt><trkpt lat="40.81598826811389" lon="8.557750364020517"><ele>39.0</ele><time>2026-05-01T10:59:39.003Z</time></trkpt><trkpt lat="40.81596829066456" lon="8.55754846152477"><ele>40.25</ele><time>2026-05-01T10:59:40.003Z</time></trkpt><trkpt lat="40.81591662470411" lon="8.557313481505382"><ele>41.5</ele><time>2026-05-01T10:59:41.003Z</time></trkpt><trkpt lat="40.81583843777361" lon="8.557176640370372"><ele>42.75</ele><time>2026-05-01T10:59:43.003Z</time></trkpt><trkpt lat="40.815801639580805" lon="8.557024210244471"><ele>44.0</ele><time>2026-05-01T10:59:44.003Z</time></trkpt><trkpt lat="40.81576427205497" lon="8.556871976240659"><ele>44.0</ele><time>2026-05-01T10:59:45.003Z</time></trkpt><trkpt lat="40.81572520205576" lon="8.556719257945316"><ele>44.0</ele><time>2026-05-01T10:59:46.003Z</time></trkpt><trkpt lat="40.81568540077512" lon="8.556564455764082"><ele>44.0</ele><time>2026-05-01T10:59:47.003Z</time></trkpt><trkpt lat="40.815646062015404" lon="8.556410251739202"><ele>44.0</ele><time>2026-05-01T10:59:48.003Z</time></trkpt><trkpt lat="40.81560586094493" lon="8.556250451323592"><ele>43.75</ele><time>2026-05-01T10:59:49.003Z</time></trkpt><trkpt lat="40.81556324516571" lon="8.556089231263627"><ele>43.5</ele><time>2026-05-01T10:59:50.003Z</time></trkpt><trkpt lat="40.81552245489907" lon="8.555924860914892"><ele>43.25</ele><time>2026-05-01T10:59:51.003Z</time></trkpt><trkpt lat="40.81548007331107" lon="8.555753994778293"><ele>43.0</ele><time>2026-05-01T10:59:52.003Z</time></trkpt><trkpt lat="40.81543671133182" lon="8.555578238235928"><ele>43.0</ele><time>2026-05-01T10:59:53.003Z</time></trkpt><trkpt lat="40.81539080254279" lon="8.555395192132124"><ele>43.0</ele><time>2026-05-01T10:59:54.003Z</time></trkpt><trkpt lat="40.81534377644954" lon="8.55520269010116"><ele>43.0</ele><time>2026-05-01T10:59:55.003Z</time></trkpt><trkpt lat="40.815295311360074" lon="8.555014240171337"><ele>43.0</ele><time>2026-05-01T10:59:56.003Z</time></trkpt><trkpt lat="40.81524778491508" lon="8.554823856575673"><ele>43.0</ele><time>2026-05-01T10:59:57.003Z</time></trkpt><trkpt lat="40.815198023269915" lon="8.554629563209108"><ele>43.0</ele><time>2026-05-01T10:59:58.003Z</time></trkpt><trkpt lat="40.815149846902486" lon="8.554435258200842"><ele>43.0</ele><time>2026-05-01T10:59:59.003Z</time></trkpt><trkpt lat="40.81510134276616" lon="8.554239757520136"><ele>43.0</ele><time>2026-05-01T11:00:00.003Z</time></trkpt><trkpt lat="40.815051138914804" lon="8.554041669117563"><ele>43.0</ele><time>2026-05-01T11:00:01.003Z</time></trkpt><trkpt lat="40.81500233274825" lon="8.553846050805987"><ele>42.333333333333336</ele><time>2026-05-01T11:00:02.003Z</time></trkpt><trkpt lat="40.81495321918984" lon="8.553651350038699"><ele>41.666666666666664</ele><time>2026-05-01T11:00:03.003Z</time></trkpt><trkpt lat="40.81490316111474" lon="8.553447627327348"><ele>41.0</ele><time>2026-05-01T11:00:04.003Z</time></trkpt><trkpt lat="40.81485682612651" lon="8.553267541917874"><ele>41.0</ele><time>2026-05-01T11:00:05.003Z</time></trkpt><trkpt lat="40.81480204100657" lon="8.553067733742898"><ele>41.0</ele><time>2026-05-01T11:00:06.003Z</time></trkpt><trkpt lat="40.814753117649225" lon="8.552875005563925"><ele>41.0</ele><time>2026-05-01T11:00:07.003Z</time></trkpt><trkpt lat="40.814700865415716" lon="8.552674724356761"><ele>40.33333333333333</ele><time>2026-05-01T11:00:08.003Z</time></trkpt><trkpt lat="40.81465530839977" lon="8.55246982604044"><ele>39.666666666666664</ele><time>2026-05-01T11:00:09.001Z</time></trkpt><trkpt lat="40.814604971072384" lon="8.55226328579232"><ele>39.0</ele><time>2026-05-01T11:00:10.001Z</time></trkpt><trkpt lat="40.81455139187897" lon="8.552052317843684"><ele>38.0</ele><time>2026-05-01T11:00:11.001Z</time></trkpt><trkpt lat="40.81449676961911" lon="8.55184380096847"><ele>37.0</ele><time>2026-05-01T11:00:12.001Z</time></trkpt><trkpt lat="40.81444286363455" lon="8.55162942113922"><ele>36.0</ele><time>2026-05-01T11:00:13Z</time></trkpt><trkpt lat="40.814390471190315" lon="8.551414788946111"><ele>36.0</ele><time>2026-05-01T11:00:14Z</time></trkpt><trkpt lat="40.814338037216906" lon="8.551207866566832"><ele>36.0</ele><time>2026-05-01T11:00:15.001Z</time></trkpt><trkpt lat="40.81428560375413" lon="8.550994277038914"><ele>36.0</ele><time>2026-05-01T11:00:16.001Z</time></trkpt><trkpt lat="40.81423594338461" lon="8.5507844710386"><ele>36.0</ele><time>2026-05-01T11:00:17.001Z</time></trkpt><trkpt lat="40.814180899254104" lon="8.550572228235895"><ele>36.0</ele><time>2026-05-01T11:00:18.001Z</time></trkpt><trkpt lat="40.81412848940594" lon="8.550373646439622"><ele>36.0</ele><time>2026-05-01T11:00:19.001Z</time></trkpt><trkpt lat="40.81407401174725" lon="8.550167463908542"><ele>35.333333333333336</ele><time>2026-05-01T11:00:20.001Z</time></trkpt><trkpt lat="40.81402663399221" lon="8.549965154444886"><ele>34.66666666666667</ele><time>2026-05-01T11:00:21.001Z</time></trkpt><trkpt lat="40.81397241800894" lon="8.549752545392789"><ele>34.0</ele><time>2026-05-01T11:00:22.001Z</time></trkpt><trkpt lat="40.81392591273208" lon="8.549541224725242"><ele>33.0</ele><time>2026-05-01T11:00:23.001Z</time></trkpt><trkpt lat="40.81387166813983" lon="8.549330104650638"><ele>32.0</ele><time>2026-05-01T11:00:24.001Z</time></trkpt><trkpt lat="40.81381519516919" lon="8.54912075034053"><ele>31.0</ele><time>2026-05-01T11:00:25.001Z</time></trkpt><trkpt lat="40.81376097530736" lon="8.548908328440286"><ele>30.333333333333336</ele><time>2026-05-01T11:00:26.001Z</time></trkpt><trkpt lat="40.81371048025758" lon="8.548690131534906"><ele>29.666666666666664</ele><time>2026-05-01T11:00:27.001Z</time></trkpt><trkpt lat="40.81365453287119" lon="8.5484721300154"><ele>29.0</ele><time>2026-05-01T11:00:28.001Z</time></trkpt><trkpt lat="40.813600092581225" lon="8.548253536874446"><ele>29.0</ele><time>2026-05-01T11:00:29.001Z</time></trkpt><trkpt lat="40.81354602366061" lon="8.548030349254097"><ele>29.0</ele><time>2026-05-01T11:00:30.001Z</time></trkpt><trkpt lat="40.813489949324776" lon="8.547813550919459"><ele>29.0</ele><time>2026-05-01T11:00:31.001Z</time></trkpt><trkpt lat="40.813434489372625" lon="8.547588825194842"><ele>28.666666666666664</ele><time>2026-05-01T11:00:32.001Z</time></trkpt><trkpt lat="40.813377491006996" lon="8.547366377352416"><ele>28.333333333333336</ele><time>2026-05-01T11:00:33.001Z</time></trkpt><trkpt lat="40.813324020813205" lon="8.547145563059706"><ele>28.0</ele><time>2026-05-01T11:00:34.001Z</time></trkpt><trkpt lat="40.813268733011554" lon="8.54692083687871"><ele>26.333333333333336</ele><time>2026-05-01T11:00:35.001Z</time></trkpt><trkpt lat="40.81321628155544" lon="8.546694353191928"><ele>24.666666666666668</ele><time>2026-05-01T11:00:36.001Z</time></trkpt><trkpt lat="40.81315517040786" lon="8.546464254274744"><ele>23.0</ele><time>2026-05-01T11:00:37.001Z</time></trkpt><trkpt lat="40.81310320945062" lon="8.546235200240913"><ele>22.666666666666668</ele><time>2026-05-01T11:00:38.001Z</time></trkpt><trkpt lat="40.813041804631155" lon="8.545996585738173"><ele>22.333333333333332</ele><time>2026-05-01T11:00:39.001Z</time></trkpt><trkpt lat="40.81298481150412" lon="8.545773952918847"><ele>22.0</ele><time>2026-05-01T11:00:40.001Z</time></trkpt><trkpt lat="40.81292742733032" lon="8.545542852163534"><ele>21.333333333333332</ele><time>2026-05-01T11:00:41.001Z</time></trkpt><trkpt lat="40.81287072847973" lon="8.54531004460715"><ele>20.666666666666668</ele><time>2026-05-01T11:00:42.001Z</time></trkpt><trkpt lat="40.812813215701986" lon="8.54508229206985"><ele>20.0</ele><time>2026-05-01T11:00:43.001Z</time></trkpt><trkpt lat="40.81275410118726" lon="8.54485336172231"><ele>20.0</ele><time>2026-05-01T11:00:44.001Z</time></trkpt><trkpt lat="40.812697868922236" lon="8.544627644002158"><ele>20.0</ele><time>2026-05-01T11:00:45.001Z</time></trkpt><trkpt lat="40.81264174115719" lon="8.544407070621054"><ele>20.0</ele><time>2026-05-01T11:00:46.001Z</time></trkpt><trkpt lat="40.81259096100212" lon="8.544185406749731"><ele>20.0</ele><time>2026-05-01T11:00:47.001Z</time></trkpt><trkpt lat="40.812532437002275" lon="8.543968313419533"><ele>20.0</ele><time>2026-05-01T11:00:48.001Z</time></trkpt><trkpt lat="40.81248296206745" lon="8.543760305674732"><ele>20.0</ele><time>2026-05-01T11:00:49.001Z</time></trkpt><trkpt lat="40.81242686945753" lon="8.543541812421703"><ele>20.0</ele><time>2026-05-01T11:00:50.001Z</time></trkpt><trkpt lat="40.81236730788712" lon="8.543327807554437"><ele>20.0</ele><time>2026-05-01T11:00:51.001Z</time></trkpt><trkpt lat="40.81231608076059" lon="8.543106170312921"><ele>20.0</ele><time>2026-05-01T11:00:52.001Z</time></trkpt><trkpt lat="40.81226235195121" lon="8.542889551315222"><ele>19.666666666666668</ele><time>2026-05-01T11:00:53.001Z</time></trkpt><trkpt lat="40.81220515129775" lon="8.542673723492532"><ele>19.333333333333332</ele><time>2026-05-01T11:00:54.001Z</time></trkpt><trkpt lat="40.81215086458059" lon="8.542453057553255"><ele>19.0</ele><time>2026-05-01T11:00:55.001Z</time></trkpt><trkpt lat="40.81209538796087" lon="8.542225902239636"><ele>18.666666666666664</ele><time>2026-05-01T11:00:56.001Z</time></trkpt><trkpt lat="40.812043611112266" lon="8.542004840614238"><ele>18.333333333333332</ele><time>2026-05-01T11:00:57.001Z</time></trkpt><trkpt lat="40.81198878273326" lon="8.541786930732513"><ele>18.0</ele><time>2026-05-01T11:00:58.001Z</time></trkpt><trkpt lat="40.81193319221447" lon="8.54156998617531"><ele>18.0</ele><time>2026-05-01T11:00:59.001Z</time></trkpt><trkpt lat="40.81187848282079" lon="8.541351077700721"><ele>18.0</ele><time>2026-05-01T11:01:00.002Z</time></trkpt><trkpt lat="40.811823904554785" lon="8.541134977851392"><ele>18.0</ele><time>2026-05-01T11:01:01.002Z</time></trkpt><trkpt lat="40.811767959490346" lon="8.540941832086126"><ele>18.75</ele><time>2026-05-01T11:01:02.002Z</time></trkpt><trkpt lat="40.81170814936866" lon="8.540769552500823"><ele>19.5</ele><time>2026-05-01T11:01:03.002Z</time></trkpt><trkpt lat="40.81163643967441" lon="8.540606462670441"><ele>20.25</ele><time>2026-05-01T11:01:04.002Z</time></trkpt><trkpt lat="40.81155171105871" lon="8.540452848308952"><ele>21.0</ele><time>2026-05-01T11:01:05.002Z</time></trkpt><trkpt lat="40.81145037294899" lon="8.540305202092354"><ele>21.0</ele><time>2026-05-01T11:01:06.002Z</time></trkpt><trkpt lat="40.81133198247038" lon="8.540168260186745"><ele>21.0</ele><time>2026-05-01T11:01:07.002Z</time></trkpt><trkpt lat="40.81121398660935" lon="8.540015876828244"><ele>21.0</ele><time>2026-05-01T11:01:08.002Z</time></trkpt><trkpt lat="40.81109125570233" lon="8.539861535809457"><ele>21.333333333333332</ele><time>2026-05-01T11:01:09.002Z</time></trkpt><trkpt lat="40.810971562979965" lon="8.539705508534206"><ele>21.666666666666664</ele><time>2026-05-01T11:01:10.002Z</time></trkpt><trkpt lat="40.81085042550809" lon="8.539550212777701"><ele>22.0</ele><time>2026-05-01T11:01:11.002Z</time></trkpt><trkpt lat="40.81072290063919" lon="8.539387022565155"><ele>21.333333333333332</ele><time>2026-05-01T11:01:12.002Z</time></trkpt><trkpt lat="40.81060008603198" lon="8.539229542169705"><ele>20.666666666666668</ele><time>2026-05-01T11:01:13.002Z</time></trkpt><trkpt lat="40.810477507983535" lon="8.539071150809152"><ele>20.0</ele><time>2026-05-01T11:01:14.002Z</time></trkpt><trkpt lat="40.810354696236736" lon="8.538914978843273"><ele>20.0</ele><time>2026-05-01T11:01:15.002Z</time></trkpt><trkpt lat="40.81022990835078" lon="8.538759204372123"><ele>20.0</ele><time>2026-05-01T11:01:16.002Z</time></trkpt><trkpt lat="40.810103946769686" lon="8.53860938727686"><ele>20.0</ele><time>2026-05-01T11:01:17.002Z</time></trkpt><trkpt lat="40.80998156514612" lon="8.538446941579814"><ele>20.333333333333336</ele><time>2026-05-01T11:01:18.002Z</time></trkpt><trkpt lat="40.809853807231754" lon="8.538289084667294"><ele>20.666666666666668</ele><time>2026-05-01T11:01:19.002Z</time></trkpt><trkpt lat="40.80972722991874" lon="8.538125023951476"><ele>21.0</ele><time>2026-05-01T11:01:20.002Z</time></trkpt><trkpt lat="40.809599173249595" lon="8.537961243952351"><ele>21.0</ele><time>2026-05-01T11:01:21.002Z</time></trkpt><trkpt lat="40.80947240721909" lon="8.537799334782882"><ele>21.0</ele><time>2026-05-01T11:01:22.002Z</time></trkpt><trkpt lat="40.80935285437011" lon="8.537645966841174"><ele>21.0</ele><time>2026-05-01T11:01:23.002Z</time></trkpt><trkpt lat="40.80924731640861" lon="8.5375010707526"><ele>21.0</ele><time>2026-05-01T11:01:24.002Z</time></trkpt><trkpt lat="40.80915221044841" lon="8.537349409327273"><ele>21.0</ele><time>2026-05-01T11:01:25.002Z</time></trkpt><trkpt lat="40.80906760911429" lon="8.537197922207902"><ele>21.0</ele><time>2026-05-01T11:01:26.002Z</time></trkpt><trkpt lat="40.809003755290945" lon="8.53702834741821"><ele>21.0</ele><time>2026-05-01T11:01:27.002Z</time></trkpt><trkpt lat="40.808947567304884" lon="8.53683926701478"><ele>20.333333333333332</ele><time>2026-05-01T11:01:28.002Z</time></trkpt><trkpt lat="40.808903340638736" lon="8.536634798096507"><ele>19.666666666666664</ele><time>2026-05-01T11:01:29.002Z</time></trkpt><trkpt lat="40.808869307081146" lon="8.53641833654208"><ele>19.0</ele><time>2026-05-01T11:01:30.002Z</time></trkpt><trkpt lat="40.80883627616918" lon="8.536198743012461"><ele>19.0</ele><time>2026-05-01T11:01:31.002Z</time></trkpt><trkpt lat="40.8088002255247" lon="8.535975575443393"><ele>19.0</ele><time>2026-05-01T11:01:32.002Z</time></trkpt><trkpt lat="40.8087627284031" lon="8.535747823264746"><ele>19.0</ele><time>2026-05-01T11:01:33.002Z</time></trkpt><trkpt lat="40.80871986183307" lon="8.535513998134288"><ele>19.0</ele><time>2026-05-01T11:01:34.002Z</time></trkpt><trkpt lat="40.808679996674016" lon="8.535282404328084"><ele>19.0</ele><time>2026-05-01T11:01:35.002Z</time></trkpt><trkpt lat="40.80864226292795" lon="8.535045016099428"><ele>19.0</ele><time>2026-05-01T11:01:36.002Z</time></trkpt><trkpt lat="40.80860399955885" lon="8.534808953078842"><ele>19.0</ele><time>2026-05-01T11:01:37.002Z</time></trkpt><trkpt lat="40.80856161151516" lon="8.534569889441249"><ele>19.0</ele><time>2026-05-01T11:01:38.002Z</time></trkpt><trkpt lat="40.80852660617873" lon="8.534335039749562"><ele>19.0</ele><time>2026-05-01T11:01:39.002Z</time></trkpt><trkpt lat="40.80848734457759" lon="8.534099368286533"><ele>18.5</ele><time>2026-05-01T11:01:40.002Z</time></trkpt><trkpt lat="40.80845096347206" lon="8.533863949293194"><ele>18.0</ele><time>2026-05-01T11:01:41.003Z</time></trkpt><trkpt lat="40.808368788966575" lon="8.53336811627639"><ele>18.0</ele><time>2026-05-01T11:01:43.003Z</time></trkpt><trkpt lat="40.80832912783273" lon="8.53314113367191"><ele>18.0</ele><time>2026-05-01T11:01:44.003Z</time></trkpt><trkpt lat="40.80828709822359" lon="8.532900245632334"><ele>18.0</ele><time>2026-05-01T11:01:45.003Z</time></trkpt><trkpt lat="40.80824761654747" lon="8.532663199517776"><ele>17.666666666666668</ele><time>2026-05-01T11:01:46.003Z</time></trkpt><trkpt lat="40.808207795074125" lon="8.532422885858574"><ele>17.333333333333336</ele><time>2026-05-01T11:01:47.003Z</time></trkpt><trkpt lat="40.8081680199945" lon="8.532187485305426"><ele>17.0</ele><time>2026-05-01T11:01:48.003Z</time></trkpt><trkpt lat="40.80812707121475" lon="8.531947676835745"><ele>16.666666666666668</ele><time>2026-05-01T11:01:49.003Z</time></trkpt><trkpt lat="40.80808915896088" lon="8.531706595470174"><ele>16.333333333333332</ele><time>2026-05-01T11:01:50.003Z</time></trkpt><trkpt lat="40.80805195450842" lon="8.531471602924018"><ele>16.0</ele><time>2026-05-01T11:01:51.003Z</time></trkpt><trkpt lat="40.80800837468467" lon="8.53123074949024"><ele>16.0</ele><time>2026-05-01T11:01:52.003Z</time></trkpt><trkpt lat="40.807968464284556" lon="8.530994770221"><ele>16.0</ele><time>2026-05-01T11:01:53.003Z</time></trkpt><trkpt lat="40.80793036091947" lon="8.53075591157173"><ele>16.0</ele><time>2026-05-01T11:01:54.003Z</time></trkpt><trkpt lat="40.80788912671271" lon="8.5305153908216"><ele>16.333333333333332</ele><time>2026-05-01T11:01:55.003Z</time></trkpt><trkpt lat="40.807848831027165" lon="8.530278431232954"><ele>16.666666666666668</ele><time>2026-05-01T11:01:56.003Z</time></trkpt><trkpt lat="40.80780678518371" lon="8.53003532476236"><ele>17.0</ele><time>2026-05-01T11:01:57.003Z</time></trkpt><trkpt lat="40.80776996957398" lon="8.529797279485924"><ele>17.0</ele><time>2026-05-01T11:01:58.003Z</time></trkpt><trkpt lat="40.807732865269585" lon="8.529561040454183"><ele>17.0</ele><time>2026-05-01T11:01:59.003Z</time></trkpt><trkpt lat="40.807692284240694" lon="8.529317231993824"><ele>17.0</ele><time>2026-05-01T11:02:00.003Z</time></trkpt><trkpt lat="40.807652121586166" lon="8.529078231793104"><ele>17.333333333333336</ele><time>2026-05-01T11:02:01.003Z</time></trkpt><trkpt lat="40.80760863859529" lon="8.528841808999683"><ele>17.666666666666668</ele><time>2026-05-01T11:02:02.003Z</time></trkpt><trkpt lat="40.807567579030646" lon="8.528599919996006"><ele>18.0</ele><time>2026-05-01T11:02:03.003Z</time></trkpt><trkpt lat="40.80753079598453" lon="8.52836463299362"><ele>18.0</ele><time>2026-05-01T11:02:04.003Z</time></trkpt><trkpt lat="40.807487870600454" lon="8.528141020929647"><ele>18.0</ele><time>2026-05-01T11:02:05.003Z</time></trkpt><trkpt lat="40.80746767643257" lon="8.527924738548919"><ele>18.0</ele><time>2026-05-01T11:02:06.003Z</time></trkpt><trkpt lat="40.80741675499043" lon="8.527725827872167"><ele>17.666666666666668</ele><time>2026-05-01T11:02:07.003Z</time></trkpt><trkpt lat="40.80735399427556" lon="8.527525607904655"><ele>17.333333333333336</ele><time>2026-05-01T11:02:08.003Z</time></trkpt><trkpt lat="40.80727983628652" lon="8.527329312228987"><ele>17.0</ele><time>2026-05-01T11:02:09.003Z</time></trkpt><trkpt lat="40.80718649181971" lon="8.527139514484897"><ele>16.0</ele><time>2026-05-01T11:02:10.003Z</time></trkpt><trkpt lat="40.807085450180246" lon="8.526950564190182"><ele>15.0</ele><time>2026-05-01T11:02:11.003Z</time></trkpt><trkpt lat="40.80697694050523" lon="8.526754111053089"><ele>14.0</ele><time>2026-05-01T11:02:12.003Z</time></trkpt><trkpt lat="40.80686541097669" lon="8.52656566415641"><ele>14.666666666666668</ele><time>2026-05-01T11:02:13.003Z</time></trkpt><trkpt lat="40.806757976943146" lon="8.526371678904919"><ele>15.333333333333332</ele><time>2026-05-01T11:02:14.003Z</time></trkpt><trkpt lat="40.80665028283184" lon="8.526187025580102"><ele>16.0</ele><time>2026-05-01T11:02:15.001Z</time></trkpt><trkpt lat="40.8065478078932" lon="8.52599798562959"><ele>16.0</ele><time>2026-05-01T11:02:16.001Z</time></trkpt><trkpt lat="40.806439577756244" lon="8.525819990309287"><ele>16.0</ele><time>2026-05-01T11:02:17.001Z</time></trkpt><trkpt lat="40.80632890871144" lon="8.525637365684235"><ele>16.0</ele><time>2026-05-01T11:02:18.001Z</time></trkpt><trkpt lat="40.80622105181749" lon="8.525450715275067"><ele>16.333333333333332</ele><time>2026-05-01T11:02:19.001Z</time></trkpt><trkpt lat="40.806122888170364" lon="8.525261544810142"><ele>16.666666666666668</ele><time>2026-05-01T11:02:20.001Z</time></trkpt><trkpt lat="40.80601808518147" lon="8.525081033628275"><ele>17.0</ele><time>2026-05-01T11:02:21.001Z</time></trkpt><trkpt lat="40.80591612651513" lon="8.524898675055146"><ele>17.333333333333336</ele><time>2026-05-01T11:02:22.001Z</time></trkpt><trkpt lat="40.80580930073128" lon="8.524723005926369"><ele>17.666666666666668</ele><time>2026-05-01T11:02:23.001Z</time></trkpt><trkpt lat="40.80571316489394" lon="8.524537386254053"><ele>18.0</ele><time>2026-05-01T11:02:24.001Z</time></trkpt><trkpt lat="40.8056142806558" lon="8.524359575849504"><ele>17.333333333333332</ele><time>2026-05-01T11:02:25.001Z</time></trkpt><trkpt lat="40.80551399451205" lon="8.524184632716631"><ele>16.666666666666664</ele><time>2026-05-01T11:02:26.001Z</time></trkpt><trkpt lat="40.805414304898704" lon="8.52401149263097"><ele>16.0</ele><time>2026-05-01T11:02:27.001Z</time></trkpt><trkpt lat="40.80531441233976" lon="8.523833719491005"><ele>16.0</ele><time>2026-05-01T11:02:28.001Z</time></trkpt><trkpt lat="40.8052164418884" lon="8.523661845585506"><ele>16.0</ele><time>2026-05-01T11:02:29.001Z</time></trkpt><trkpt lat="40.80511953524974" lon="8.523490547553681"><ele>16.0</ele><time>2026-05-01T11:02:30.001Z</time></trkpt><trkpt lat="40.80502643618074" lon="8.52331832952566"><ele>16.0</ele><time>2026-05-01T11:02:31.001Z</time></trkpt><trkpt lat="40.804936076026735" lon="8.523152734171736"><ele>16.0</ele><time>2026-05-01T11:02:32.001Z</time></trkpt><trkpt lat="40.80484593140455" lon="8.523003696252454"><ele>16.0</ele><time>2026-05-01T11:02:33.001Z</time></trkpt><trkpt lat="40.804748349096926" lon="8.522860364072807"><ele>16.0</ele><time>2026-05-01T11:02:34.001Z</time></trkpt><trkpt lat="40.80464747979753" lon="8.52272627852797"><ele>16.0</ele><time>2026-05-01T11:02:35.001Z</time></trkpt><trkpt lat="40.804542524576625" lon="8.522596215843318"><ele>16.0</ele><time>2026-05-01T11:02:36.001Z</time></trkpt><trkpt lat="40.804430971790666" lon="8.522469233155858"><ele>16.0</ele><time>2026-05-01T11:02:37.001Z</time></trkpt><trkpt lat="40.804313400582075" lon="8.522345677302708"><ele>16.0</ele><time>2026-05-01T11:02:38.001Z</time></trkpt><trkpt lat="40.80419217549206" lon="8.522219370018933"><ele>16.333333333333332</ele><time>2026-05-01T11:02:39.001Z</time></trkpt><trkpt lat="40.804075014536096" lon="8.522092450416542"><ele>16.666666666666668</ele><time>2026-05-01T11:02:40.001Z</time></trkpt><trkpt lat="40.8039550674625" lon="8.52197476207075"><ele>17.0</ele><time>2026-05-01T11:02:41.001Z</time></trkpt><trkpt lat="40.80383810592665" lon="8.521851577340161"><ele>17.0</ele><time>2026-05-01T11:02:42.001Z</time></trkpt><trkpt lat="40.80372119029463" lon="8.521728302638284"><ele>17.0</ele><time>2026-05-01T11:02:43.001Z</time></trkpt><trkpt lat="40.8036106782386" lon="8.521614320877898"><ele>17.0</ele><time>2026-05-01T11:02:44.001Z</time></trkpt><trkpt lat="40.803505423314235" lon="8.521503341569405"><ele>17.0</ele><time>2026-05-01T11:02:45.001Z</time></trkpt><trkpt lat="40.803406690494334" lon="8.5213940247627"><ele>17.25</ele><time>2026-05-01T11:02:46.001Z</time></trkpt><trkpt lat="40.80331854999515" lon="8.521292549239131"><ele>17.5</ele><time>2026-05-01T11:02:47.001Z</time></trkpt><trkpt lat="40.80323697648274" lon="8.521179289114643"><ele>17.75</ele><time>2026-05-01T11:02:48.001Z</time></trkpt><trkpt lat="40.80315791485362" lon="8.521075112207107"><ele>18.0</ele><time>2026-05-01T11:02:49.001Z</time></trkpt><trkpt lat="40.80309237169704" lon="8.520925395469305"><ele>18.0</ele><time>2026-05-01T11:02:50.001Z</time></trkpt><trkpt lat="40.8030740309204" lon="8.520778587375313"><ele>18.0</ele><time>2026-05-01T11:02:51.001Z</time></trkpt><trkpt lat="40.80302604128918" lon="8.520639854463528"><ele>18.0</ele><time>2026-05-01T11:02:52.001Z</time></trkpt><trkpt lat="40.802998108931085" lon="8.520500382978732"><ele>18.0</ele><time>2026-05-01T11:02:53.001Z</time></trkpt><trkpt lat="40.80297824316407" lon="8.52040118952913"><ele>18.0</ele><time>2026-05-01T11:02:54.001Z</time></trkpt><trkpt lat="40.803000044796875" lon="8.52026720368355"><ele>18.0</ele><time>2026-05-01T11:02:56.001Z</time></trkpt><trkpt lat="40.80297764218264" lon="8.520373396752156"><ele>18.0</ele><time>2026-05-01T11:03:31.002Z</time></trkpt><trkpt lat="40.80298091459349" lon="8.520500550968386"><ele>18.0</ele><time>2026-05-01T11:03:33.002Z</time></trkpt><trkpt lat="40.80291864669503" lon="8.520741583113928"><ele>18.0</ele><time>2026-05-01T11:03:35.002Z</time></trkpt><trkpt lat="40.80290682561196" lon="8.52084809529961"><ele>18.0</ele><time>2026-05-01T11:03:36.002Z</time></trkpt><trkpt lat="40.802891676523835" lon="8.520956842485456"><ele>18.0</ele><time>2026-05-01T11:03:37.002Z</time></trkpt><trkpt lat="40.80288003083511" lon="8.521064240914011"><ele>18.0</ele><time>2026-05-01T11:03:38.002Z</time></trkpt><trkpt lat="40.80286463504036" lon="8.52118500208359"><ele>18.0</ele><time>2026-05-01T11:03:39.002Z</time></trkpt><trkpt lat="40.80284384893287" lon="8.521309021857325"><ele>18.0</ele><time>2026-05-01T11:03:40.002Z</time></trkpt><trkpt lat="40.802822813283974" lon="8.521438826507467"><ele>18.4</ele><time>2026-05-01T11:03:41.002Z</time></trkpt><trkpt lat="40.80280346396389" lon="8.521568053633644"><ele>18.8</ele><time>2026-05-01T11:03:42.003Z</time></trkpt><trkpt lat="40.802787868840824" lon="8.521693509377897"><ele>19.2</ele><time>2026-05-01T11:03:43.003Z</time></trkpt><trkpt lat="40.802773751568175" lon="8.52182238958567"><ele>19.6</ele><time>2026-05-01T11:03:44.003Z</time></trkpt><trkpt lat="40.802759716767405" lon="8.521933784204466"><ele>20.0</ele><time>2026-05-01T11:03:45.003Z</time></trkpt><trkpt lat="40.80274536861755" lon="8.52204220674858"><ele>20.0</ele><time>2026-05-01T11:03:46.003Z</time></trkpt><trkpt lat="40.80272175941427" lon="8.522129962026916"><ele>20.0</ele><time>2026-05-01T11:03:47.003Z</time></trkpt><trkpt lat="40.80266867440848" lon="8.52226876183088"><ele>20.0</ele><time>2026-05-01T11:03:49.003Z</time></trkpt><trkpt lat="40.80260829588174" lon="8.522363152718665"><ele>20.0</ele><time>2026-05-01T11:03:51.003Z</time></trkpt><trkpt lat="40.80256155248574" lon="8.522439412809433"><ele>20.0</ele><time>2026-05-01T11:03:53.003Z</time></trkpt><trkpt lat="40.802585094833596" lon="8.522558542559919"><ele>20.0</ele><time>2026-05-01T11:11:32.001Z</time></trkpt><trkpt lat="40.80265436383164" lon="8.522624655759595"><ele>20.0</ele><time>2026-05-01T11:11:35.001Z</time></trkpt><trkpt lat="40.80271525322681" lon="8.522579361397456"><ele>20.0</ele><time>2026-05-01T11:11:37.001Z</time></trkpt><trkpt lat="40.802734781932095" lon="8.522487393379546"><ele>20.0</ele><time>2026-05-01T11:11:39.001Z</time></trkpt><trkpt lat="40.80276085501966" lon="8.522357392525818"><ele>20.0</ele><time>2026-05-01T11:11:41.001Z</time></trkpt><trkpt lat="40.80277208347871" lon="8.522269880116449"><ele>20.0</ele><time>2026-05-01T11:11:42.001Z</time></trkpt><trkpt lat="40.802781656419775" lon="8.522174891334696"><ele>20.0</ele><time>2026-05-01T11:11:43.001Z</time></trkpt><trkpt lat="40.802790024276426" lon="8.522060829991249"><ele>20.0</ele><time>2026-05-01T11:11:44.001Z</time></trkpt><trkpt lat="40.80280307718521" lon="8.52194460929946"><ele>20.0</ele><time>2026-05-01T11:11:45.001Z</time></trkpt><trkpt lat="40.80281989851801" lon="8.521814346152176"><ele>20.0</ele><time>2026-05-01T11:11:46.001Z</time></trkpt><trkpt lat="40.80283754891024" lon="8.521677720250631"><ele>20.0</ele><time>2026-05-01T11:11:47.001Z</time></trkpt><trkpt lat="40.802858818545204" lon="8.52153742987319"><ele>20.0</ele><time>2026-05-01T11:11:48.001Z</time></trkpt><trkpt lat="40.80288035541077" lon="8.52139948322453"><ele>20.0</ele><time>2026-05-01T11:11:49.001Z</time></trkpt><trkpt lat="40.8029021844588" lon="8.521255557518824"><ele>20.0</ele><time>2026-05-01T11:11:50.001Z</time></trkpt><trkpt lat="40.80292400727649" lon="8.521108392084445"><ele>20.0</ele><time>2026-05-01T11:11:51.001Z</time></trkpt><trkpt lat="40.802945124927774" lon="8.52095261806981"><ele>20.0</ele><time>2026-05-01T11:11:52.001Z</time></trkpt><trkpt lat="40.80296480036146" lon="8.520797402637657"><ele>19.5</ele><time>2026-05-01T11:11:53.001Z</time></trkpt><trkpt lat="40.802978179123684" lon="8.520632913215637"><ele>19.0</ele><time>2026-05-01T11:11:54.001Z</time></trkpt><trkpt lat="40.802983356149596" lon="8.520459765581505"><ele>18.5</ele><time>2026-05-01T11:11:55.001Z</time></trkpt><trkpt lat="40.80298227990617" lon="8.520282082629606"><ele>18.0</ele><time>2026-05-01T11:11:56.001Z</time></trkpt><trkpt lat="40.802978932100686" lon="8.520098031776035"><ele>17.5</ele><time>2026-05-01T11:11:57.001Z</time></trkpt><trkpt lat="40.80297572856105" lon="8.519911053206705"><ele>17.0</ele><time>2026-05-01T11:11:58.001Z</time></trkpt><trkpt lat="40.80296988346372" lon="8.519723761101908"><ele>16.5</ele><time>2026-05-01T11:11:59.001Z</time></trkpt><trkpt lat="40.80296748474997" lon="8.519538697140408"><ele>16.0</ele><time>2026-05-01T11:12:00.001Z</time></trkpt><trkpt lat="40.80296252793841" lon="8.519341198459959"><ele>15.666666666666666</ele><time>2026-05-01T11:12:01.001Z</time></trkpt><trkpt lat="40.80295854877339" lon="8.519139833301434"><ele>15.333333333333332</ele><time>2026-05-01T11:12:02.001Z</time></trkpt><trkpt lat="40.80295206478654" lon="8.518942168078642"><ele>15.0</ele><time>2026-05-01T11:12:03.001Z</time></trkpt><trkpt lat="40.80294561827331" lon="8.518740881466282"><ele>15.0</ele><time>2026-05-01T11:12:04.001Z</time></trkpt><trkpt lat="40.80294102714805" lon="8.518539596930074"><ele>15.0</ele><time>2026-05-01T11:12:05.001Z</time></trkpt><trkpt lat="40.80293368406426" lon="8.518336924429745"><ele>15.0</ele><time>2026-05-01T11:12:06.001Z</time></trkpt><trkpt lat="40.80292664393011" lon="8.518133118504403"><ele>15.0</ele><time>2026-05-01T11:12:07.001Z</time></trkpt><trkpt lat="40.802922650441985" lon="8.517926669800442"><ele>15.0</ele><time>2026-05-01T11:12:08.001Z</time></trkpt><trkpt lat="40.802913505178864" lon="8.517718656556463"><ele>15.0</ele><time>2026-05-01T11:12:09.001Z</time></trkpt><trkpt lat="40.80290726769337" lon="8.517516531038677"><ele>15.0</ele><time>2026-05-01T11:12:10.002Z</time></trkpt><trkpt lat="40.80290181235436" lon="8.517316460648628"><ele>15.0</ele><time>2026-05-01T11:12:11.002Z</time></trkpt><trkpt lat="40.802898355878675" lon="8.517116331152767"><ele>15.0</ele><time>2026-05-01T11:12:12.002Z</time></trkpt><trkpt lat="40.80289096392138" lon="8.51691719826748"><ele>15.0</ele><time>2026-05-01T11:12:13.002Z</time></trkpt><trkpt lat="40.80289445901507" lon="8.516729624599764"><ele>15.0</ele><time>2026-05-01T11:12:14.002Z</time></trkpt><trkpt lat="40.80286747065032" lon="8.516533391722724"><ele>15.0</ele><time>2026-05-01T11:12:15.002Z</time></trkpt><trkpt lat="40.80282733326842" lon="8.51633724776395"><ele>15.0</ele><time>2026-05-01T11:12:16.002Z</time></trkpt><trkpt lat="40.802776506447785" lon="8.516144016945809"><ele>15.0</ele><time>2026-05-01T11:12:17.002Z</time></trkpt><trkpt lat="40.80272226570677" lon="8.515942128551183"><ele>15.0</ele><time>2026-05-01T11:12:18.002Z</time></trkpt><trkpt lat="40.80266459149939" lon="8.515744483517924"><ele>15.0</ele><time>2026-05-01T11:12:19.002Z</time></trkpt><trkpt lat="40.80261530042754" lon="8.515538849138615"><ele>15.666666666666668</ele><time>2026-05-01T11:12:20.002Z</time></trkpt><trkpt lat="40.80256147814864" lon="8.515339158219625"><ele>16.333333333333336</ele><time>2026-05-01T11:12:21.002Z</time></trkpt><trkpt lat="40.8025089165094" lon="8.515141625904292"><ele>17.0</ele><time>2026-05-01T11:12:22.002Z</time></trkpt><trkpt lat="40.80245436899822" lon="8.514938669035262"><ele>17.0</ele><time>2026-05-01T11:12:23.002Z</time></trkpt><trkpt lat="40.80240719444769" lon="8.5147376308473"><ele>17.0</ele><time>2026-05-01T11:12:24.002Z</time></trkpt><trkpt lat="40.802353629003065" lon="8.514535602672899"><ele>17.0</ele><time>2026-05-01T11:12:25.002Z</time></trkpt><trkpt lat="40.80230042390961" lon="8.514325775024584"><ele>17.0</ele><time>2026-05-01T11:12:26.002Z</time></trkpt><trkpt lat="40.80224079198685" lon="8.514121496701874"><ele>17.0</ele><time>2026-05-01T11:12:27.002Z</time></trkpt><trkpt lat="40.802187035216825" lon="8.513917967049899"><ele>17.0</ele><time>2026-05-01T11:12:28.002Z</time></trkpt><trkpt lat="40.8021296900343" lon="8.513710172646114"><ele>17.0</ele><time>2026-05-01T11:12:29.002Z</time></trkpt><trkpt lat="40.802075676953706" lon="8.513511892404466"><ele>17.0</ele><time>2026-05-01T11:12:30.002Z</time></trkpt><trkpt lat="40.80202109263533" lon="8.5133022117169"><ele>17.0</ele><time>2026-05-01T11:12:31.002Z</time></trkpt><trkpt lat="40.80197150679987" lon="8.513107669832843"><ele>17.0</ele><time>2026-05-01T11:12:32.002Z</time></trkpt><trkpt lat="40.80192341703306" lon="8.512917418033338"><ele>17.0</ele><time>2026-05-01T11:12:33.002Z</time></trkpt><trkpt lat="40.80187145255025" lon="8.512724467165603"><ele>17.0</ele><time>2026-05-01T11:12:34.002Z</time></trkpt><trkpt lat="40.80182256871688" lon="8.51252852347847"><ele>17.666666666666668</ele><time>2026-05-01T11:12:35.002Z</time></trkpt><trkpt lat="40.80177666701761" lon="8.512338536452445"><ele>18.333333333333332</ele><time>2026-05-01T11:12:36.002Z</time></trkpt><trkpt lat="40.80172342946282" lon="8.512147974891947"><ele>19.0</ele><time>2026-05-01T11:12:37.002Z</time></trkpt><trkpt lat="40.80167137623349" lon="8.511953275976168"><ele>19.0</ele><time>2026-05-01T11:12:38.002Z</time></trkpt><trkpt lat="40.80161445186349" lon="8.511749411600045"><ele>19.0</ele><time>2026-05-01T11:12:39.002Z</time></trkpt><trkpt lat="40.80155480978645" lon="8.511549467662077"><ele>19.0</ele><time>2026-05-01T11:12:40.002Z</time></trkpt><trkpt lat="40.80149993819676" lon="8.511341471073624"><ele>18.666666666666664</ele><time>2026-05-01T11:12:41.002Z</time></trkpt><trkpt lat="40.8014426366023" lon="8.511140519969178"><ele>18.333333333333332</ele><time>2026-05-01T11:12:42.002Z</time></trkpt><trkpt lat="40.80139445473454" lon="8.51094159655802"><ele>18.0</ele><time>2026-05-01T11:12:43.002Z</time></trkpt><trkpt lat="40.801343630862576" lon="8.510749519699777"><ele>18.0</ele><time>2026-05-01T11:12:44.002Z</time></trkpt><trkpt lat="40.80129210671591" lon="8.510551279985636"><ele>18.0</ele><time>2026-05-01T11:12:45.001Z</time></trkpt><trkpt lat="40.801244234893964" lon="8.510357683184766"><ele>18.0</ele><time>2026-05-01T11:12:46.001Z</time></trkpt><trkpt lat="40.80118590166029" lon="8.510164530234485"><ele>17.0</ele><time>2026-05-01T11:12:47.001Z</time></trkpt><trkpt lat="40.8011358574234" lon="8.509972341230394"><ele>16.0</ele><time>2026-05-01T11:12:48.001Z</time></trkpt><trkpt lat="40.8010843743353" lon="8.509780970877307"><ele>15.0</ele><time>2026-05-01T11:12:49.001Z</time></trkpt><trkpt lat="40.80104200439827" lon="8.509594915346172"><ele>15.2</ele><time>2026-05-01T11:12:50.001Z</time></trkpt><trkpt lat="40.80101002431717" lon="8.50942372579437"><ele>15.4</ele><time>2026-05-01T11:12:51.001Z</time></trkpt><trkpt lat="40.80098568746055" lon="8.509270259315093"><ele>15.600000000000001</ele><time>2026-05-01T11:12:52.001Z</time></trkpt><trkpt lat="40.80097187750314" lon="8.509135947668154"><ele>15.8</ele><time>2026-05-01T11:12:53.001Z</time></trkpt><trkpt lat="40.80097267020929" lon="8.509019127107141"><ele>16.0</ele><time>2026-05-01T11:12:54.001Z</time></trkpt><trkpt lat="40.80098294571488" lon="8.508928973519078"><ele>16.0</ele><time>2026-05-01T11:12:55.001Z</time></trkpt><trkpt lat="40.80101347528607" lon="8.508845677725065"><ele>15.999999999999998</ele><time>2026-05-01T11:12:56.001Z</time></trkpt><trkpt lat="40.8010522572868" lon="8.508768985620376"><ele>16.0</ele><time>2026-05-01T11:12:57Z</time></trkpt><trkpt lat="40.8010753469657" lon="8.508682704210761"><ele>16.0</ele><time>2026-05-01T11:12:58Z</time></trkpt><trkpt lat="40.80108419134554" lon="8.508593640528114"><ele>15.999999999999998</ele><time>2026-05-01T11:12:59Z</time></trkpt><trkpt lat="40.80107906335647" lon="8.508507834867524"><ele>16.0</ele><time>2026-05-01T11:13:00Z</time></trkpt><trkpt lat="40.801064059542654" lon="8.508412329601647"><ele>16.0</ele><time>2026-05-01T11:13:01Z</time></trkpt><trkpt lat="40.80103931754299" lon="8.508309757333784"><ele>16.0</ele><time>2026-05-01T11:13:02Z</time></trkpt><trkpt lat="40.801011147319095" lon="8.508208413141109"><ele>16.0</ele><time>2026-05-01T11:13:03Z</time></trkpt><trkpt lat="40.80099619836941" lon="8.508084833559032"><ele>16.0</ele><time>2026-05-01T11:13:04Z</time></trkpt><trkpt lat="40.80100316340089" lon="8.507953061732021"><ele>16.0</ele><time>2026-05-01T11:13:05Z</time></trkpt><trkpt lat="40.80102132208159" lon="8.507825205782506"><ele>16.0</ele><time>2026-05-01T11:13:06Z</time></trkpt><trkpt lat="40.801085716097965" lon="8.50770437263767"><ele>16.400000000000002</ele><time>2026-05-01T11:13:07Z</time></trkpt><trkpt lat="40.80114373047518" lon="8.507584179716467"><ele>16.8</ele><time>2026-05-01T11:13:08Z</time></trkpt><trkpt lat="40.80119228445427" lon="8.507459740970182"><ele>17.200000000000003</ele><time>2026-05-01T11:13:09Z</time></trkpt><trkpt lat="40.80125803204791" lon="8.507349940882756"><ele>17.6</ele><time>2026-05-01T11:13:10Z</time></trkpt><trkpt lat="40.801318500290954" lon="8.507249560951758"><ele>18.0</ele><time>2026-05-01T11:13:11Z</time></trkpt><trkpt lat="40.801389557200345" lon="8.507111595040175"><ele>18.5</ele><time>2026-05-01T11:13:12Z</time></trkpt><trkpt lat="40.801465546198" lon="8.506961541626133"><ele>19.0</ele><time>2026-05-01T11:13:13Z</time></trkpt><trkpt lat="40.80154422346868" lon="8.506800274732633"><ele>19.5</ele><time>2026-05-01T11:13:14Z</time></trkpt><trkpt lat="40.801620840543784" lon="8.506636828718316"><ele>20.0</ele><time>2026-05-01T11:13:15Z</time></trkpt><trkpt lat="40.8016988612668" lon="8.506471892207188"><ele>20.0</ele><time>2026-05-01T11:13:16Z</time></trkpt><trkpt lat="40.801778767906576" lon="8.506302824279514"><ele>20.0</ele><time>2026-05-01T11:13:17Z</time></trkpt><trkpt lat="40.80185685424394" lon="8.50613106795253"><ele>20.0</ele><time>2026-05-01T11:13:18Z</time></trkpt><trkpt lat="40.801936973494534" lon="8.505960331506193"><ele>20.0</ele><time>2026-05-01T11:13:19Z</time></trkpt><trkpt lat="40.80201023476906" lon="8.505787507684738"><ele>20.0</ele><time>2026-05-01T11:13:20Z</time></trkpt><trkpt lat="40.80207584212118" lon="8.505612899167721"><ele>20.0</ele><time>2026-05-01T11:13:21Z</time></trkpt><trkpt lat="40.80213934833179" lon="8.505434029288503"><ele>20.0</ele><time>2026-05-01T11:13:22Z</time></trkpt><trkpt lat="40.80219431990571" lon="8.505243320515225"><ele>20.333333333333336</ele><time>2026-05-01T11:13:23Z</time></trkpt><trkpt lat="40.80224001470608" lon="8.505048739025092"><ele>20.666666666666668</ele><time>2026-05-01T11:13:24Z</time></trkpt><trkpt lat="40.80228226867031" lon="8.504851887834517"><ele>21.0</ele><time>2026-05-01T11:13:25Z</time></trkpt><trkpt lat="40.80232290278627" lon="8.504657636579545"><ele>21.25</ele><time>2026-05-01T11:13:26Z</time></trkpt><trkpt lat="40.80236007115616" lon="8.5044657418786"><ele>21.5</ele><time>2026-05-01T11:13:27Z</time></trkpt><trkpt lat="40.80239112398874" lon="8.504286764109574"><ele>21.75</ele><time>2026-05-01T11:13:28Z</time></trkpt><trkpt lat="40.80243385913775" lon="8.504111800233845"><ele>22.0</ele><time>2026-05-01T11:13:29Z</time></trkpt><trkpt lat="40.802473906312805" lon="8.503932651966535"><ele>22.0</ele><time>2026-05-01T11:13:30Z</time></trkpt><trkpt lat="40.80250887887468" lon="8.50375476609098"><ele>22.0</ele><time>2026-05-01T11:13:31Z</time></trkpt><trkpt lat="40.80254217177535" lon="8.503583135913393"><ele>22.0</ele><time>2026-05-01T11:13:32Z</time></trkpt><trkpt lat="40.80258091910036" lon="8.503415938917614"><ele>22.0</ele><time>2026-05-01T11:13:33Z</time></trkpt><trkpt lat="40.802623472986255" lon="8.503244041476657"><ele>22.25</ele><time>2026-05-01T11:13:34Z</time></trkpt><trkpt lat="40.80266404274657" lon="8.503065499518781"><ele>22.5</ele><time>2026-05-01T11:13:35Z</time></trkpt><trkpt lat="40.802706744951266" lon="8.502883543746991"><ele>22.75</ele><time>2026-05-01T11:13:36Z</time></trkpt><trkpt lat="40.80274857797759" lon="8.50269803186914"><ele>23.0</ele><time>2026-05-01T11:13:37Z</time></trkpt><trkpt lat="40.802793973218385" lon="8.502505172653677"><ele>22.333333333333336</ele><time>2026-05-01T11:13:38Z</time></trkpt><trkpt lat="40.8028294601668" lon="8.502305705922922"><ele>21.666666666666668</ele><time>2026-05-01T11:13:39Z</time></trkpt><trkpt lat="40.80286983799418" lon="8.502102826994154"><ele>21.0</ele><time>2026-05-01T11:13:40Z</time></trkpt><trkpt lat="40.802909985238934" lon="8.50189107051331"><ele>21.0</ele><time>2026-05-01T11:13:41Z</time></trkpt><trkpt lat="40.80295103153538" lon="8.501679064370553"><ele>21.0</ele><time>2026-05-01T11:13:42Z</time></trkpt><trkpt lat="40.80299275002735" lon="8.501464553938867"><ele>21.0</ele><time>2026-05-01T11:13:43Z</time></trkpt><trkpt lat="40.803037454117074" lon="8.501253875340792"><ele>21.0</ele><time>2026-05-01T11:13:44Z</time></trkpt><trkpt lat="40.80309932979485" lon="8.50104082361586"><ele>21.0</ele><time>2026-05-01T11:13:45.001Z</time></trkpt><trkpt lat="40.80314895718657" lon="8.500827787361434"><ele>21.0</ele><time>2026-05-01T11:13:46.001Z</time></trkpt><trkpt lat="40.80319691093696" lon="8.500618451007892"><ele>21.333333333333332</ele><time>2026-05-01T11:13:47.001Z</time></trkpt><trkpt lat="40.80324448164806" lon="8.50040727596613"><ele>21.666666666666664</ele><time>2026-05-01T11:13:48.001Z</time></trkpt><trkpt lat="40.803288263234556" lon="8.500196477870807"><ele>22.0</ele><time>2026-05-01T11:13:49.001Z</time></trkpt><trkpt lat="40.80333386476653" lon="8.499981264676025"><ele>22.0</ele><time>2026-05-01T11:13:50.001Z</time></trkpt><trkpt lat="40.803381616243094" lon="8.499763846127935"><ele>22.0</ele><time>2026-05-01T11:13:51.001Z</time></trkpt><trkpt lat="40.80342668123668" lon="8.499543659710367"><ele>22.0</ele><time>2026-05-01T11:13:52.001Z</time></trkpt><trkpt lat="40.803475053775486" lon="8.499321093984827"><ele>20.666666666666664</ele><time>2026-05-01T11:13:53.001Z</time></trkpt><trkpt lat="40.803523273999296" lon="8.499102931018415"><ele>19.333333333333332</ele><time>2026-05-01T11:13:54.001Z</time></trkpt><trkpt lat="40.80356578532689" lon="8.49888258582683"><ele>18.0</ele><time>2026-05-01T11:13:55.001Z</time></trkpt><trkpt lat="40.803613137783294" lon="8.49865609500466"><ele>18.0</ele><time>2026-05-01T11:13:56.001Z</time></trkpt><trkpt lat="40.803653140627986" lon="8.498425695376978"><ele>18.0</ele><time>2026-05-01T11:13:57.001Z</time></trkpt><trkpt lat="40.80369645984755" lon="8.498197702779589"><ele>18.0</ele><time>2026-05-01T11:13:58.001Z</time></trkpt><trkpt lat="40.803734881704614" lon="8.497962949494795"><ele>18.0</ele><time>2026-05-01T11:13:59.001Z</time></trkpt><trkpt lat="40.80377627693677" lon="8.497730048873446"><ele>18.0</ele><time>2026-05-01T11:14:00.001Z</time></trkpt><trkpt lat="40.80381611245487" lon="8.497496655419877"><ele>18.0</ele><time>2026-05-01T11:14:01.001Z</time></trkpt><trkpt lat="40.80385624997684" lon="8.497258557658986"><ele>18.333333333333332</ele><time>2026-05-01T11:14:02.001Z</time></trkpt><trkpt lat="40.803896160139125" lon="8.497028609963987"><ele>18.666666666666664</ele><time>2026-05-01T11:14:03.001Z</time></trkpt><trkpt lat="40.80393401776059" lon="8.496797472449897"><ele>19.0</ele><time>2026-05-01T11:14:04.001Z</time></trkpt><trkpt lat="40.803976058075285" lon="8.496567517373077"><ele>19.0</ele><time>2026-05-01T11:14:05.001Z</time></trkpt><trkpt lat="40.804018828857295" lon="8.496332729939502"><ele>19.0</ele><time>2026-05-01T11:14:06.001Z</time></trkpt><trkpt lat="40.80405978065324" lon="8.496097527972378"><ele>19.0</ele><time>2026-05-01T11:14:07.001Z</time></trkpt><trkpt lat="40.80409895983057" lon="8.495862276562164"><ele>19.0</ele><time>2026-05-01T11:14:08.001Z</time></trkpt><trkpt lat="40.804140388474195" lon="8.495629029844713"><ele>19.0</ele><time>2026-05-01T11:14:09.001Z</time></trkpt><trkpt lat="40.80417987744369" lon="8.495393174177494"><ele>19.0</ele><time>2026-05-01T11:14:10.001Z</time></trkpt><trkpt lat="40.80421974136657" lon="8.495159390875777"><ele>19.0</ele><time>2026-05-01T11:14:11.001Z</time></trkpt><trkpt lat="40.80426066156587" lon="8.494925556986338"><ele>19.0</ele><time>2026-05-01T11:14:12.001Z</time></trkpt><trkpt lat="40.80430316062873" lon="8.494691346039499"><ele>19.0</ele><time>2026-05-01T11:14:13.001Z</time></trkpt><trkpt lat="40.804344348972265" lon="8.494460581791753"><ele>18.333333333333332</ele><time>2026-05-01T11:14:14.001Z</time></trkpt><trkpt lat="40.80438575142143" lon="8.494228158337002"><ele>17.666666666666668</ele><time>2026-05-01T11:14:15.001Z</time></trkpt><trkpt lat="40.80442481899309" lon="8.493994956618774"><ele>17.0</ele><time>2026-05-01T11:14:16.001Z</time></trkpt><trkpt lat="40.80446189390807" lon="8.49375963963588"><ele>16.666666666666668</ele><time>2026-05-01T11:14:17.001Z</time></trkpt><trkpt lat="40.8044969392384" lon="8.493522617965484"><ele>16.333333333333332</ele><time>2026-05-01T11:14:18.001Z</time></trkpt><trkpt lat="40.80453154450992" lon="8.49328016838615"><ele>16.0</ele><time>2026-05-01T11:14:19.001Z</time></trkpt><trkpt lat="40.80456516445054" lon="8.493035334284603"><ele>15.666666666666666</ele><time>2026-05-01T11:14:20.001Z</time></trkpt><trkpt lat="40.804599961543644" lon="8.492793795434709"><ele>15.333333333333332</ele><time>2026-05-01T11:14:21.001Z</time></trkpt><trkpt lat="40.80463422217249" lon="8.492550844103258"><ele>15.0</ele><time>2026-05-01T11:14:22.001Z</time></trkpt><trkpt lat="40.80467153101662" lon="8.49230354120168"><ele>14.666666666666668</ele><time>2026-05-01T11:14:23.001Z</time></trkpt><trkpt lat="40.80470949748062" lon="8.492055201343527"><ele>14.333333333333334</ele><time>2026-05-01T11:14:24.001Z</time></trkpt><trkpt lat="40.80474742886417" lon="8.491808510431472"><ele>14.0</ele><time>2026-05-01T11:14:25.001Z</time></trkpt><trkpt lat="40.804783379559076" lon="8.491560694376528"><ele>14.0</ele><time>2026-05-01T11:14:26.001Z</time></trkpt><trkpt lat="40.80481741335971" lon="8.491316062203001"><ele>14.0</ele><time>2026-05-01T11:14:27.001Z</time></trkpt><trkpt lat="40.804855617746426" lon="8.491068639925919"><ele>14.0</ele><time>2026-05-01T11:14:28.001Z</time></trkpt><trkpt lat="40.804892020390426" lon="8.49081967848439"><ele>14.0</ele><time>2026-05-01T11:14:29.001Z</time></trkpt><trkpt lat="40.804929488111306" lon="8.490570439821399"><ele>14.0</ele><time>2026-05-01T11:14:30.001Z</time></trkpt><trkpt lat="40.80496703820481" lon="8.490317672845121"><ele>14.0</ele><time>2026-05-01T11:14:31.001Z</time></trkpt><trkpt lat="40.805004870448485" lon="8.490062834809208"><ele>14.0</ele><time>2026-05-01T11:14:32.001Z</time></trkpt><trkpt lat="40.80504335172343" lon="8.489809073901647"><ele>14.0</ele><time>2026-05-01T11:14:33.001Z</time></trkpt><trkpt lat="40.80508363502784" lon="8.489555155114106"><ele>14.0</ele><time>2026-05-01T11:14:34.001Z</time></trkpt><trkpt lat="40.80512640996342" lon="8.489305745672757"><ele>13.666666666666668</ele><time>2026-05-01T11:14:35.001Z</time></trkpt><trkpt lat="40.805168330749225" lon="8.489055416015722"><ele>13.333333333333332</ele><time>2026-05-01T11:14:36.001Z</time></trkpt><trkpt lat="40.805206903278055" lon="8.488802505076748"><ele>13.0</ele><time>2026-05-01T11:14:37.001Z</time></trkpt><trkpt lat="40.805244171464025" lon="8.488556205219929"><ele>13.0</ele><time>2026-05-01T11:14:38.001Z</time></trkpt><trkpt lat="40.80527977902145" lon="8.488309059630714"><ele>13.0</ele><time>2026-05-01T11:14:39.001Z</time></trkpt><trkpt lat="40.80531526991344" lon="8.488063557012145"><ele>13.0</ele><time>2026-05-01T11:14:40.001Z</time></trkpt><trkpt lat="40.80535489616306" lon="8.487813065970803"><ele>13.0</ele><time>2026-05-01T11:14:41.001Z</time></trkpt><trkpt lat="40.80539110372536" lon="8.487560601657451"><ele>13.0</ele><time>2026-05-01T11:14:42.001Z</time></trkpt><trkpt lat="40.805427656959985" lon="8.487310325890421"><ele>13.0</ele><time>2026-05-01T11:14:43.001Z</time></trkpt><trkpt lat="40.80546521732612" lon="8.487058294910033"><ele>13.666666666666666</ele><time>2026-05-01T11:14:44.001Z</time></trkpt><trkpt lat="40.80550342481203" lon="8.48680788350339"><ele>14.333333333333332</ele><time>2026-05-01T11:14:45.001Z</time></trkpt><trkpt lat="40.80554112590763" lon="8.486553082581077"><ele>15.0</ele><time>2026-05-01T11:14:46.001Z</time></trkpt><trkpt lat="40.80558101342568" lon="8.48629374345078"><ele>15.333333333333332</ele><time>2026-05-01T11:14:47.001Z</time></trkpt><trkpt lat="40.80562185659461" lon="8.486033955467343"><ele>15.666666666666666</ele><time>2026-05-01T11:14:48.001Z</time></trkpt><trkpt lat="40.80566278271724" lon="8.485776235567274"><ele>16.0</ele><time>2026-05-01T11:14:49.001Z</time></trkpt><trkpt lat="40.80569961996367" lon="8.485515024119803"><ele>16.333333333333332</ele><time>2026-05-01T11:14:50.001Z</time></trkpt><trkpt lat="40.80573727023615" lon="8.485256790120353"><ele>16.666666666666668</ele><time>2026-05-01T11:14:50.999Z</time></trkpt><trkpt lat="40.80577718681115" lon="8.484998019336855"><ele>17.0</ele><time>2026-05-01T11:14:51.999Z</time></trkpt><trkpt lat="40.805818003385006" lon="8.484739726948193"><ele>17.666666666666668</ele><time>2026-05-01T11:14:52.999Z</time></trkpt><trkpt lat="40.80585882996921" lon="8.484479256382638"><ele>18.333333333333332</ele><time>2026-05-01T11:14:53.999Z</time></trkpt><trkpt lat="40.805898952941604" lon="8.484223091107186"><ele>19.0</ele><time>2026-05-01T11:14:54.999Z</time></trkpt><trkpt lat="40.80593773038924" lon="8.483966096892479"><ele>19.0</ele><time>2026-05-01T11:14:55.999Z</time></trkpt><trkpt lat="40.805979983501" lon="8.48370939075301"><ele>19.0</ele><time>2026-05-01T11:14:56.999Z</time></trkpt><trkpt lat="40.80602320545998" lon="8.483451644913869"><ele>19.0</ele><time>2026-05-01T11:14:57.999Z</time></trkpt><trkpt lat="40.80606366238653" lon="8.483192614874103"><ele>18.666666666666664</ele><time>2026-05-01T11:14:58.999Z</time></trkpt><trkpt lat="40.80610430680143" lon="8.48293448798493"><ele>18.333333333333332</ele><time>2026-05-01T11:14:59.999Z</time></trkpt><trkpt lat="40.80614447357384" lon="8.482674935395819"><ele>18.0</ele><time>2026-05-01T11:15:00.999Z</time></trkpt><trkpt lat="40.8061855462842" lon="8.48241838644234"><ele>18.0</ele><time>2026-05-01T11:15:01.999Z</time></trkpt><trkpt lat="40.80622876114975" lon="8.482162138544165"><ele>18.0</ele><time>2026-05-01T11:15:02.999Z</time></trkpt><trkpt lat="40.80627280562819" lon="8.48190667291407"><ele>18.0</ele><time>2026-05-01T11:15:03.999Z</time></trkpt><trkpt lat="40.806311983949264" lon="8.481649172676105"><ele>18.0</ele><time>2026-05-01T11:15:04.999Z</time></trkpt><trkpt lat="40.80635362539665" lon="8.48139187338175"><ele>18.0</ele><time>2026-05-01T11:15:05.999Z</time></trkpt><trkpt lat="40.80639473560627" lon="8.481133391254579"><ele>18.0</ele><time>2026-05-01T11:15:06.999Z</time></trkpt><trkpt lat="40.8064323315341" lon="8.480876181664755"><ele>18.0</ele><time>2026-05-01T11:15:07.999Z</time></trkpt><trkpt lat="40.80647480178048" lon="8.480621893294357"><ele>18.0</ele><time>2026-05-01T11:15:08.999Z</time></trkpt><trkpt lat="40.80651527231801" lon="8.480364169506656"><ele>18.0</ele><time>2026-05-01T11:15:09.999Z</time></trkpt><trkpt lat="40.806551912008686" lon="8.480105610595633"><ele>18.333333333333332</ele><time>2026-05-01T11:15:10.999Z</time></trkpt><trkpt lat="40.80658931225905" lon="8.479848434184111"><ele>18.666666666666664</ele><time>2026-05-01T11:15:11.999Z</time></trkpt><trkpt lat="40.8066282580683" lon="8.479591364505808"><ele>19.0</ele><time>2026-05-01T11:15:12.999Z</time></trkpt><trkpt lat="40.806667240990556" lon="8.479332726414983"><ele>19.333333333333332</ele><time>2026-05-01T11:15:13.999Z</time></trkpt><trkpt lat="40.806704599846576" lon="8.479073910792343"><ele>19.666666666666668</ele><time>2026-05-01T11:15:14.999Z</time></trkpt><trkpt lat="40.80674419245693" lon="8.478817261749157"><ele>20.0</ele><time>2026-05-01T11:15:15.999Z</time></trkpt><trkpt lat="40.806783290602795" lon="8.478562406337025"><ele>19.666666666666668</ele><time>2026-05-01T11:15:16.999Z</time></trkpt><trkpt lat="40.80682078024796" lon="8.478315435365541"><ele>19.333333333333332</ele><time>2026-05-01T11:15:17.999Z</time></trkpt><trkpt lat="40.80684836461394" lon="8.478077146063242"><ele>19.0</ele><time>2026-05-01T11:15:18.999Z</time></trkpt><trkpt lat="40.80687245393911" lon="8.477858783298872"><ele>19.0</ele><time>2026-05-01T11:15:20Z</time></trkpt><trkpt lat="40.806904809879924" lon="8.477657875447303"><ele>19.0</ele><time>2026-05-01T11:15:21Z</time></trkpt><trkpt lat="40.806934289133515" lon="8.477464710034976"><ele>19.0</ele><time>2026-05-01T11:15:22Z</time></trkpt><trkpt lat="40.806959276435485" lon="8.47729317341143"><ele>19.0</ele><time>2026-05-01T11:15:23Z</time></trkpt><trkpt lat="40.8069859308626" lon="8.477139604172397"><ele>19.6</ele><time>2026-05-01T11:15:24Z</time></trkpt><trkpt lat="40.80701559445667" lon="8.477006765601061"><ele>20.2</ele><time>2026-05-01T11:15:25Z</time></trkpt><trkpt lat="40.8070534835934" lon="8.476882300486531"><ele>20.8</ele><time>2026-05-01T11:15:26Z</time></trkpt><trkpt lat="40.80709184238212" lon="8.47675831502246"><ele>21.400000000000002</ele><time>2026-05-01T11:15:27Z</time></trkpt><trkpt lat="40.807115877636946" lon="8.476625197633906"><ele>22.0</ele><time>2026-05-01T11:15:28Z</time></trkpt><trkpt lat="40.807129206968504" lon="8.476489009096545"><ele>22.0</ele><time>2026-05-01T11:15:29Z</time></trkpt><trkpt lat="40.80714582878719" lon="8.476343174779316"><ele>22.0</ele><time>2026-05-01T11:15:30Z</time></trkpt><trkpt lat="40.80716485638613" lon="8.47618218875549"><ele>22.0</ele><time>2026-05-01T11:15:31Z</time></trkpt><trkpt lat="40.80718105430052" lon="8.476012411905444"><ele>22.0</ele><time>2026-05-01T11:15:32Z</time></trkpt><trkpt lat="40.80720028796384" lon="8.47583692415388"><ele>22.25</ele><time>2026-05-01T11:15:33Z</time></trkpt><trkpt lat="40.80722639880391" lon="8.475660088183487"><ele>22.5</ele><time>2026-05-01T11:15:34Z</time></trkpt><trkpt lat="40.807253787091675" lon="8.475467524124348"><ele>22.75</ele><time>2026-05-01T11:15:35Z</time></trkpt><trkpt lat="40.80728463499319" lon="8.475265353762303"><ele>23.0</ele><time>2026-05-01T11:15:36Z</time></trkpt><trkpt lat="40.80731686287808" lon="8.475046221281774"><ele>23.666666666666668</ele><time>2026-05-01T11:15:37Z</time></trkpt><trkpt lat="40.80734994831699" lon="8.474826876644789"><ele>24.333333333333336</ele><time>2026-05-01T11:15:38Z</time></trkpt><trkpt lat="40.8073829285991" lon="8.474605534074206"><ele>25.0</ele><time>2026-05-01T11:15:39Z</time></trkpt><trkpt lat="40.807418119926396" lon="8.474375337291233"><ele>26.0</ele><time>2026-05-01T11:15:40Z</time></trkpt><trkpt lat="40.80745455955437" lon="8.474141067882506"><ele>27.0</ele><time>2026-05-01T11:15:41Z</time></trkpt><trkpt lat="40.80749604791855" lon="8.473905759018947"><ele>28.0</ele><time>2026-05-01T11:15:42Z</time></trkpt><trkpt lat="40.807541126758494" lon="8.473670572709793"><ele>28.333333333333336</ele><time>2026-05-01T11:15:43Z</time></trkpt><trkpt lat="40.80759203837269" lon="8.473434828275808"><ele>28.666666666666664</ele><time>2026-05-01T11:15:44Z</time></trkpt><trkpt lat="40.80764465271578" lon="8.473201382848968"><ele>29.0</ele><time>2026-05-01T11:15:45Z</time></trkpt><trkpt lat="40.807698333560694" lon="8.47297028601032"><ele>31.666666666666664</ele><time>2026-05-01T11:15:46Z</time></trkpt><trkpt lat="40.80775110347243" lon="8.472753867254106"><ele>34.333333333333336</ele><time>2026-05-01T11:15:47Z</time></trkpt><trkpt lat="40.80780639716141" lon="8.472541986597824"><ele>37.0</ele><time>2026-05-01T11:15:48Z</time></trkpt><trkpt lat="40.80787364245183" lon="8.4723360266047"><ele>37.0</ele><time>2026-05-01T11:15:49Z</time></trkpt><trkpt lat="40.80795288268498" lon="8.472133572457135"><ele>37.0</ele><time>2026-05-01T11:15:50Z</time></trkpt><trkpt lat="40.80803786134151" lon="8.471935203157237"><ele>37.0</ele><time>2026-05-01T11:15:51Z</time></trkpt><trkpt lat="40.80811897647638" lon="8.471742073038072"><ele>38.0</ele><time>2026-05-01T11:15:52Z</time></trkpt><trkpt lat="40.808196320165706" lon="8.471541875454736"><ele>39.0</ele><time>2026-05-01T11:15:53Z</time></trkpt><trkpt lat="40.808270566651956" lon="8.471336316077494"><ele>40.0</ele><time>2026-05-01T11:15:54Z</time></trkpt><trkpt lat="40.808332226698056" lon="8.47112966493452"><ele>40.333333333333336</ele><time>2026-05-01T11:15:55Z</time></trkpt><trkpt lat="40.808388730815544" lon="8.470923323846772"><ele>40.666666666666664</ele><time>2026-05-01T11:15:56Z</time></trkpt><trkpt lat="40.80844628623079" lon="8.470725463426469"><ele>41.0</ele><time>2026-05-01T11:15:57Z</time></trkpt><trkpt lat="40.808515469389796" lon="8.470537264040242"><ele>43.0</ele><time>2026-05-01T11:15:58Z</time></trkpt><trkpt lat="40.80859498113264" lon="8.470352541093897"><ele>45.0</ele><time>2026-05-01T11:15:59Z</time></trkpt><trkpt lat="40.80867568124431" lon="8.47017036208467"><ele>47.0</ele><time>2026-05-01T11:16:00Z</time></trkpt><trkpt lat="40.8087603240243" lon="8.470007459789745"><ele>47.0</ele><time>2026-05-01T11:16:01Z</time></trkpt><trkpt lat="40.80885796586361" lon="8.469850268809433"><ele>47.0</ele><time>2026-05-01T11:16:02Z</time></trkpt><trkpt lat="40.808966892552625" lon="8.469698660094233"><ele>47.0</ele><time>2026-05-01T11:16:03Z</time></trkpt><trkpt lat="40.80908581641863" lon="8.469554962843041"><ele>47.33333333333333</ele><time>2026-05-01T11:16:04Z</time></trkpt><trkpt lat="40.8092107645565" lon="8.46941882739301"><ele>47.666666666666664</ele><time>2026-05-01T11:16:05Z</time></trkpt><trkpt lat="40.80932636942758" lon="8.469289420934379"><ele>48.0</ele><time>2026-05-01T11:16:06Z</time></trkpt><trkpt lat="40.80942200040979" lon="8.469158729497245"><ele>48.75</ele><time>2026-05-01T11:16:07Z</time></trkpt><trkpt lat="40.809496866781984" lon="8.469019873382813"><ele>49.5</ele><time>2026-05-01T11:16:08Z</time></trkpt><trkpt lat="40.80955845476003" lon="8.468869055283834"><ele>50.25</ele><time>2026-05-01T11:16:09Z</time></trkpt><trkpt lat="40.809609577940655" lon="8.468706606775202"><ele>51.0</ele><time>2026-05-01T11:16:10Z</time></trkpt><trkpt lat="40.809648682135396" lon="8.468537927356634"><ele>52.0</ele><time>2026-05-01T11:16:11Z</time></trkpt><trkpt lat="40.8096761176058" lon="8.468357819800001"><ele>53.0</ele><time>2026-05-01T11:16:12Z</time></trkpt><trkpt lat="40.80968429575621" lon="8.468176362719317"><ele>54.0</ele><time>2026-05-01T11:16:13Z</time></trkpt><trkpt lat="40.809674198752866" lon="8.467991578483414"><ele>55.0</ele><time>2026-05-01T11:16:14Z</time></trkpt><trkpt lat="40.809652252506986" lon="8.46779055564391"><ele>55.666666666666664</ele><time>2026-05-01T11:16:15Z</time></trkpt><trkpt lat="40.80963067456155" lon="8.46758405095549"><ele>56.33333333333333</ele><time>2026-05-01T11:16:16Z</time></trkpt><trkpt lat="40.80961242555928" lon="8.467372783746384"><ele>57.0</ele><time>2026-05-01T11:16:17Z</time></trkpt><trkpt lat="40.809596192468724" lon="8.467162436435471"><ele>58.0</ele><time>2026-05-01T11:16:18Z</time></trkpt><trkpt lat="40.80958482896749" lon="8.46695836112566"><ele>59.0</ele><time>2026-05-01T11:16:19Z</time></trkpt><trkpt lat="40.809579224777025" lon="8.466759836820286"><ele>60.0</ele><time>2026-05-01T11:16:20Z</time></trkpt><trkpt lat="40.80957761257462" lon="8.466574927493209"><ele>61.0</ele><time>2026-05-01T11:16:21Z</time></trkpt><trkpt lat="40.809588350979446" lon="8.466397756552974"><ele>61.75</ele><time>2026-05-01T11:16:22Z</time></trkpt><trkpt lat="40.80961606657361" lon="8.466231303967966"><ele>62.5</ele><time>2026-05-01T11:16:23Z</time></trkpt><trkpt lat="40.80966266019063" lon="8.466081512942601"><ele>63.25</ele><time>2026-05-01T11:16:24Z</time></trkpt><trkpt lat="40.809730397727684" lon="8.465941248959966"><ele>64.0</ele><time>2026-05-01T11:16:25Z</time></trkpt><trkpt lat="40.809808995746835" lon="8.465795441195299"><ele>64.0</ele><time>2026-05-01T11:16:26Z</time></trkpt><trkpt lat="40.809883120424814" lon="8.465654980208452"><ele>64.0</ele><time>2026-05-01T11:16:27Z</time></trkpt><trkpt lat="40.80993903434531" lon="8.465514578877245"><ele>64.0</ele><time>2026-05-01T11:16:28Z</time></trkpt><trkpt lat="40.80996794368434" lon="8.465380345101362"><ele>64.0</ele><time>2026-05-01T11:16:29Z</time></trkpt><trkpt lat="40.80997129703962" lon="8.465247894973832"><ele>64.8</ele><time>2026-05-01T11:16:30Z</time></trkpt><trkpt lat="40.80995983750704" lon="8.4651108559964"><ele>65.60000000000001</ele><time>2026-05-01T11:16:31Z</time></trkpt><trkpt lat="40.80993711149006" lon="8.464974309952321"><ele>66.4</ele><time>2026-05-01T11:16:32Z</time></trkpt><trkpt lat="40.80989744139556" lon="8.464831145556516"><ele>67.2</ele><time>2026-05-01T11:16:33Z</time></trkpt><trkpt lat="40.80985464789469" lon="8.464693836344967"><ele>68.0</ele><time>2026-05-01T11:16:34Z</time></trkpt><trkpt lat="40.80981623975775" lon="8.464556235674388"><ele>68.25</ele><time>2026-05-01T11:16:35Z</time></trkpt><trkpt lat="40.809787621185265" lon="8.464416262656707"><ele>68.5</ele><time>2026-05-01T11:16:36Z</time></trkpt><trkpt lat="40.80977905308728" lon="8.464269506656937"><ele>68.75</ele><time>2026-05-01T11:16:37Z</time></trkpt><trkpt lat="40.80979688983313" lon="8.464114355601689"><ele>69.0</ele><time>2026-05-01T11:16:38Z</time></trkpt><trkpt lat="40.80983435254513" lon="8.46395452430486"><ele>69.0</ele><time>2026-05-01T11:16:39Z</time></trkpt><trkpt lat="40.809890090139774" lon="8.46379241007545"><ele>69.0</ele><time>2026-05-01T11:16:40Z</time></trkpt><trkpt lat="40.80995059296125" lon="8.463624843507475"><ele>69.0</ele><time>2026-05-01T11:16:41Z</time></trkpt><trkpt lat="40.80999722778771" lon="8.463457707222386"><ele>69.0</ele><time>2026-05-01T11:16:42Z</time></trkpt><trkpt lat="40.810058553363525" lon="8.463304612877998"><ele>69.25</ele><time>2026-05-01T11:16:43Z</time></trkpt><trkpt lat="40.81008647497713" lon="8.463123537527274"><ele>69.5</ele><time>2026-05-01T11:16:44Z</time></trkpt><trkpt lat="40.81008709022762" lon="8.462931879087018"><ele>69.75</ele><time>2026-05-01T11:16:45Z</time></trkpt><trkpt lat="40.81006497622572" lon="8.462724102497814"><ele>70.0</ele><time>2026-05-01T11:16:46Z</time></trkpt><trkpt lat="40.81003382167557" lon="8.462521613722453"><ele>71.0</ele><time>2026-05-01T11:16:47Z</time></trkpt><trkpt lat="40.810002147851606" lon="8.462315749431564"><ele>72.0</ele><time>2026-05-01T11:16:48Z</time></trkpt><trkpt lat="40.80996771761312" lon="8.462091970378795"><ele>73.0</ele><time>2026-05-01T11:16:49Z</time></trkpt><trkpt lat="40.80993392190137" lon="8.461872315339116"><ele>73.33333333333333</ele><time>2026-05-01T11:16:50Z</time></trkpt><trkpt lat="40.809900256295016" lon="8.461653505674121"><ele>73.66666666666667</ele><time>2026-05-01T11:16:51Z</time></trkpt><trkpt lat="40.809870779945996" lon="8.461439258487612"><ele>74.0</ele><time>2026-05-01T11:16:52Z</time></trkpt><trkpt lat="40.80984840678136" lon="8.461219181601535"><ele>74.66666666666667</ele><time>2026-05-01T11:16:53Z</time></trkpt><trkpt lat="40.8098388649631" lon="8.460994738792401"><ele>75.33333333333333</ele><time>2026-05-01T11:16:54Z</time></trkpt><trkpt lat="40.80983712222789" lon="8.460768508131789"><ele>76.0</ele><time>2026-05-01T11:16:55.001Z</time></trkpt><trkpt lat="40.80983676166072" lon="8.460540110695558"><ele>77.33333333333333</ele><time>2026-05-01T11:16:56.001Z</time></trkpt><trkpt lat="40.80983639694186" lon="8.460309083919412"><ele>78.66666666666667</ele><time>2026-05-01T11:16:56.999Z</time></trkpt><trkpt lat="40.809842362267716" lon="8.460077306053444"><ele>80.0</ele><time>2026-05-01T11:16:57.998Z</time></trkpt><trkpt lat="40.8098421885549" lon="8.45983522363575"><ele>80.33333333333334</ele><time>2026-05-01T11:16:58.998Z</time></trkpt><trkpt lat="40.80984370423404" lon="8.459589646113859"><ele>80.66666666666667</ele><time>2026-05-01T11:16:59.999Z</time></trkpt><trkpt lat="40.809843119062144" lon="8.459348499312252"><ele>81.0</ele><time>2026-05-01T11:17:00.999Z</time></trkpt><trkpt lat="40.809843435255715" lon="8.459103047986243"><ele>81.0</ele><time>2026-05-01T11:17:01.999Z</time></trkpt><trkpt lat="40.80984175893307" lon="8.458860961853505"><ele>81.0</ele><time>2026-05-01T11:17:02.999Z</time></trkpt><trkpt lat="40.80983948468161" lon="8.458614314289484"><ele>81.0</ele><time>2026-05-01T11:17:03.998Z</time></trkpt><trkpt lat="40.80983703312722" lon="8.458360747427765"><ele>81.0</ele><time>2026-05-01T11:17:04.998Z</time></trkpt><trkpt lat="40.809838018919706" lon="8.458117475580599"><ele>81.0</ele><time>2026-05-01T11:17:05.999Z</time></trkpt><trkpt lat="40.8098348847019" lon="8.45787225066494"><ele>81.0</ele><time>2026-05-01T11:17:06.999Z</time></trkpt><trkpt lat="40.80983354738981" lon="8.457627123290838"><ele>81.66666666666667</ele><time>2026-05-01T11:17:07.999Z</time></trkpt><trkpt lat="40.80983348101261" lon="8.457386363855507"><ele>82.33333333333334</ele><time>2026-05-01T11:17:08.999Z</time></trkpt><trkpt lat="40.80983411982785" lon="8.457138916959904"><ele>83.0</ele><time>2026-05-01T11:17:09.999Z</time></trkpt><trkpt lat="40.809833200629534" lon="8.456895048875893"><ele>83.0</ele><time>2026-05-01T11:17:10.999Z</time></trkpt><trkpt lat="40.80983282552845" lon="8.45665382233227"><ele>83.0</ele><time>2026-05-01T11:17:11.999Z</time></trkpt><trkpt lat="40.809832401469166" lon="8.456423354542045"><ele>83.0</ele><time>2026-05-01T11:17:12.999Z</time></trkpt><trkpt lat="40.809833674884935" lon="8.456197313264248"><ele>82.5</ele><time>2026-05-01T11:17:13.999Z</time></trkpt><trkpt lat="40.80983340133554" lon="8.455989349583346"><ele>82.0</ele><time>2026-05-01T11:17:14.999Z</time></trkpt><trkpt lat="40.80983587921709" lon="8.455796441158848"><ele>81.5</ele><time>2026-05-01T11:17:15.999Z</time></trkpt><trkpt lat="40.809844363805844" lon="8.45560976043539"><ele>81.0</ele><time>2026-05-01T11:17:16.999Z</time></trkpt><trkpt lat="40.80987016700456" lon="8.4554357853812"><ele>81.0</ele><time>2026-05-01T11:17:17.999Z</time></trkpt><trkpt lat="40.80991568077399" lon="8.455265022573634"><ele>81.0</ele><time>2026-05-01T11:17:18.999Z</time></trkpt><trkpt lat="40.809971685012464" lon="8.45508955996091"><ele>81.0</ele><time>2026-05-01T11:17:19.999Z</time></trkpt><trkpt lat="40.81003245750128" lon="8.454912484152944"><ele>81.0</ele><time>2026-05-01T11:17:20.999Z</time></trkpt><trkpt lat="40.81009569031107" lon="8.45472369706142"><ele>79.66666666666667</ele><time>2026-05-01T11:17:21.999Z</time></trkpt><trkpt lat="40.81016148894123" lon="8.454523306581068"><ele>78.33333333333334</ele><time>2026-05-01T11:17:22.999Z</time></trkpt><trkpt lat="40.81023158595224" lon="8.454313346962428"><ele>77.0</ele><time>2026-05-01T11:17:23.999Z</time></trkpt><trkpt lat="40.81030226255799" lon="8.454099809571135"><ele>77.0</ele><time>2026-05-01T11:17:24.999Z</time></trkpt><trkpt lat="40.810372029878025" lon="8.453885767630373"><ele>77.0</ele><time>2026-05-01T11:17:25.999Z</time></trkpt><trkpt lat="40.810446266229015" lon="8.453666306330913"><ele>77.0</ele><time>2026-05-01T11:17:26.999Z</time></trkpt><trkpt lat="40.81052100910845" lon="8.453448167350928"><ele>77.0</ele><time>2026-05-01T11:17:27.999Z</time></trkpt><trkpt lat="40.81059484947861" lon="8.453229573990711"><ele>77.0</ele><time>2026-05-01T11:17:28.999Z</time></trkpt><trkpt lat="40.810666191375276" lon="8.453014294448622"><ele>77.0</ele><time>2026-05-01T11:17:29.999Z</time></trkpt><trkpt lat="40.81073834228803" lon="8.452801617354975"><ele>77.66666666666667</ele><time>2026-05-01T11:17:30.999Z</time></trkpt><trkpt lat="40.81081180950634" lon="8.452584607574483"><ele>78.33333333333333</ele><time>2026-05-01T11:17:31.999Z</time></trkpt><trkpt lat="40.81088509424463" lon="8.452371016001953"><ele>79.0</ele><time>2026-05-01T11:17:32.999Z</time></trkpt><trkpt lat="40.810962050482146" lon="8.452154684733124"><ele>77.33333333333333</ele><time>2026-05-01T11:17:33.999Z</time></trkpt><trkpt lat="40.81103843150775" lon="8.451937332501561"><ele>75.66666666666667</ele><time>2026-05-01T11:17:34.999Z</time></trkpt><trkpt lat="40.811116009989256" lon="8.451715582249035"><ele>74.0</ele><time>2026-05-01T11:17:35.999Z</time></trkpt><trkpt lat="40.811190845926724" lon="8.451493398190555"><ele>74.66666666666667</ele><time>2026-05-01T11:17:36.999Z</time></trkpt><trkpt lat="40.81126507633446" lon="8.451270188019164"><ele>75.33333333333333</ele><time>2026-05-01T11:17:37.999Z</time></trkpt><trkpt lat="40.81133909944974" lon="8.451049189134938"><ele>76.0</ele><time>2026-05-01T11:17:38.999Z</time></trkpt><trkpt lat="40.81141537166689" lon="8.450822295541077"><ele>76.0</ele><time>2026-05-01T11:17:39.999Z</time></trkpt><trkpt lat="40.81149193836969" lon="8.450595507327034"><ele>76.0</ele><time>2026-05-01T11:17:40.999Z</time></trkpt><trkpt lat="40.81156964152242" lon="8.450372502698741"><ele>76.0</ele><time>2026-05-01T11:17:41.999Z</time></trkpt><trkpt lat="40.811647205138975" lon="8.450147427884971"><ele>75.66666666666666</ele><time>2026-05-01T11:17:42.999Z</time></trkpt><trkpt lat="40.81172775604728" lon="8.449917121446767"><ele>75.33333333333333</ele><time>2026-05-01T11:17:43.999Z</time></trkpt><trkpt lat="40.81180337732895" lon="8.44968875302853"><ele>75.0</ele><time>2026-05-01T11:17:44.999Z</time></trkpt><trkpt lat="40.81187790700151" lon="8.449465728426329"><ele>75.0</ele><time>2026-05-01T11:17:45.999Z</time></trkpt><trkpt lat="40.81195338329952" lon="8.449241943425928"><ele>75.0</ele><time>2026-05-01T11:17:46.999Z</time></trkpt><trkpt lat="40.812030383010416" lon="8.449022747574206"><ele>75.0</ele><time>2026-05-01T11:17:47.999Z</time></trkpt><trkpt lat="40.81210978715984" lon="8.448802848268057"><ele>75.66666666666667</ele><time>2026-05-01T11:17:48.999Z</time></trkpt><trkpt lat="40.812184440996965" lon="8.448578892585015"><ele>76.33333333333334</ele><time>2026-05-01T11:17:49.999Z</time></trkpt><trkpt lat="40.81225716928373" lon="8.448358505894172"><ele>77.0</ele><time>2026-05-01T11:17:50.999Z</time></trkpt><trkpt lat="40.812331935034216" lon="8.448134678407307"><ele>77.0</ele><time>2026-05-01T11:17:51.999Z</time></trkpt><trkpt lat="40.81240820047961" lon="8.44791167281474"><ele>77.0</ele><time>2026-05-01T11:17:52.999Z</time></trkpt><trkpt lat="40.812485523777475" lon="8.447682859097227"><ele>77.0</ele><time>2026-05-01T11:17:53.999Z</time></trkpt><trkpt lat="40.81256442778997" lon="8.447450356536665"><ele>77.0</ele><time>2026-05-01T11:17:54.999Z</time></trkpt><trkpt lat="40.812640600760446" lon="8.447215188393718"><ele>77.0</ele><time>2026-05-01T11:17:55.999Z</time></trkpt><trkpt lat="40.812721691527365" lon="8.446980338847144"><ele>77.0</ele><time>2026-05-01T11:17:56.999Z</time></trkpt><trkpt lat="40.81280112887558" lon="8.446741349408258"><ele>75.66666666666667</ele><time>2026-05-01T11:17:58Z</time></trkpt><trkpt lat="40.81287892118585" lon="8.446496443952487"><ele>74.33333333333333</ele><time>2026-05-01T11:17:59Z</time></trkpt><trkpt lat="40.81295536507316" lon="8.446258387968747"><ele>73.0</ele><time>2026-05-01T11:18:00Z</time></trkpt><trkpt lat="40.81304652686732" lon="8.446027419375257"><ele>72.66666666666666</ele><time>2026-05-01T11:18:01Z</time></trkpt><trkpt lat="40.81311093612646" lon="8.445783734954311"><ele>72.33333333333333</ele><time>2026-05-01T11:18:02Z</time></trkpt><trkpt lat="40.813194445720406" lon="8.445562156957218"><ele>72.0</ele><time>2026-05-01T11:18:03Z</time></trkpt><trkpt lat="40.813276040980405" lon="8.445335906767124"><ele>70.66666666666667</ele><time>2026-05-01T11:18:04Z</time></trkpt><trkpt lat="40.813354174515254" lon="8.445106421846381"><ele>69.33333333333334</ele><time>2026-05-01T11:18:05Z</time></trkpt><trkpt lat="40.81343323339711" lon="8.444878114204002"><ele>68.0</ele><time>2026-05-01T11:18:06Z</time></trkpt><trkpt lat="40.81351185176223" lon="8.44464810836719"><ele>67.33333333333334</ele><time>2026-05-01T11:18:07Z</time></trkpt><trkpt lat="40.81358920527995" lon="8.44441660044894"><ele>66.66666666666667</ele><time>2026-05-01T11:18:08Z</time></trkpt><trkpt lat="40.81366527930552" lon="8.444185664720502"><ele>66.0</ele><time>2026-05-01T11:18:09Z</time></trkpt><trkpt lat="40.813743731101546" lon="8.443952739896643"><ele>66.33333333333333</ele><time>2026-05-01T11:18:10Z</time></trkpt><trkpt lat="40.81382227687051" lon="8.443719241882407"><ele>66.66666666666666</ele><time>2026-05-01T11:18:11Z</time></trkpt><trkpt lat="40.81390373712804" lon="8.443490428047692"><ele>67.0</ele><time>2026-05-01T11:18:12Z</time></trkpt><trkpt lat="40.813980538965644" lon="8.443260843735583"><ele>67.0</ele><time>2026-05-01T11:18:13Z</time></trkpt><trkpt lat="40.81405915704318" lon="8.443029340228163"><ele>67.0</ele><time>2026-05-01T11:18:14Z</time></trkpt><trkpt lat="40.81414002603709" lon="8.442794892094712"><ele>67.0</ele><time>2026-05-01T11:18:15Z</time></trkpt><trkpt lat="40.81421923672715" lon="8.442562005207419"><ele>67.66666666666666</ele><time>2026-05-01T11:18:16Z</time></trkpt><trkpt lat="40.81429831730792" lon="8.442327659659647"><ele>68.33333333333333</ele><time>2026-05-01T11:18:17Z</time></trkpt><trkpt lat="40.81437698530151" lon="8.44209244139489"><ele>69.0</ele><time>2026-05-01T11:18:18Z</time></trkpt><trkpt lat="40.81445974770375" lon="8.441859559249158"><ele>69.0</ele><time>2026-05-01T11:18:19Z</time></trkpt><trkpt lat="40.8145422529799" lon="8.441623234242059"><ele>69.0</ele><time>2026-05-01T11:18:20Z</time></trkpt><trkpt lat="40.814624349739844" lon="8.44138767901932"><ele>69.0</ele><time>2026-05-01T11:18:21Z</time></trkpt><trkpt lat="40.81470769030218" lon="8.441156426748282"><ele>69.66666666666667</ele><time>2026-05-01T11:18:22Z</time></trkpt><trkpt lat="40.814786788683826" lon="8.440918157357212"><ele>70.33333333333334</ele><time>2026-05-01T11:18:23Z</time></trkpt><trkpt lat="40.814870486522615" lon="8.440682880697514"><ele>71.0</ele><time>2026-05-01T11:18:24Z</time></trkpt><trkpt lat="40.81494852464716" lon="8.44045485045962"><ele>71.0</ele><time>2026-05-01T11:18:25Z</time></trkpt><trkpt lat="40.815027225918925" lon="8.44022952838302"><ele>71.0</ele><time>2026-05-01T11:18:26Z</time></trkpt><trkpt lat="40.81510466424545" lon="8.440002180399615"><ele>71.0</ele><time>2026-05-01T11:18:27Z</time></trkpt><trkpt lat="40.815177837045006" lon="8.43977911553369"><ele>71.0</ele><time>2026-05-01T11:18:28Z</time></trkpt><trkpt lat="40.815241906646825" lon="8.439555574990933"><ele>71.0</ele><time>2026-05-01T11:18:29Z</time></trkpt><trkpt lat="40.8152991199568" lon="8.439325895497195"><ele>71.0</ele><time>2026-05-01T11:18:30Z</time></trkpt><trkpt lat="40.815347991402454" lon="8.439090449828129"><ele>71.0</ele><time>2026-05-01T11:18:31Z</time></trkpt><trkpt lat="40.815395521844955" lon="8.43885281247211"><ele>71.0</ele><time>2026-05-01T11:18:32Z</time></trkpt><trkpt lat="40.81544245487866" lon="8.43860975613395"><ele>71.0</ele><time>2026-05-01T11:18:33Z</time></trkpt><trkpt lat="40.81549063095979" lon="8.43836403921457"><ele>70.33333333333334</ele><time>2026-05-01T11:18:34Z</time></trkpt><trkpt lat="40.81553821264669" lon="8.438114259652439"><ele>69.66666666666667</ele><time>2026-05-01T11:18:35Z</time></trkpt><trkpt lat="40.81558388350498" lon="8.437864073350957"><ele>69.0</ele><time>2026-05-01T11:18:36Z</time></trkpt><trkpt lat="40.81562500577856" lon="8.437612336093403"><ele>68.66666666666667</ele><time>2026-05-01T11:18:37Z</time></trkpt><trkpt lat="40.81567250592348" lon="8.437361235615196"><ele>68.33333333333334</ele><time>2026-05-01T11:18:38Z</time></trkpt><trkpt lat="40.81571867599888" lon="8.43711002198838"><ele>68.0</ele><time>2026-05-01T11:18:39Z</time></trkpt><trkpt lat="40.815763884819795" lon="8.43686324209547"><ele>68.0</ele><time>2026-05-01T11:18:40Z</time></trkpt><trkpt lat="40.81581474796682" lon="8.436622013945884"><ele>68.0</ele><time>2026-05-01T11:18:41Z</time></trkpt><trkpt lat="40.815863440937825" lon="8.436374471691057"><ele>68.0</ele><time>2026-05-01T11:18:42Z</time></trkpt><trkpt lat="40.81591149481589" lon="8.436122411191613"><ele>68.0</ele><time>2026-05-01T11:18:43Z</time></trkpt><trkpt lat="40.815957620763456" lon="8.435871636127736"><ele>68.0</ele><time>2026-05-01T11:18:44Z</time></trkpt><trkpt lat="40.81600473282965" lon="8.435622821578402"><ele>68.0</ele><time>2026-05-01T11:18:45Z</time></trkpt><trkpt lat="40.81605245425622" lon="8.4353816304719"><ele>66.66666666666667</ele><time>2026-05-01T11:18:46Z</time></trkpt><trkpt lat="40.81609507419327" lon="8.435135298644964"><ele>65.33333333333333</ele><time>2026-05-01T11:18:47Z</time></trkpt><trkpt lat="40.81613700052683" lon="8.43488869395289"><ele>64.0</ele><time>2026-05-01T11:18:48Z</time></trkpt><trkpt lat="40.816181126062865" lon="8.434644818249744"><ele>63.666666666666664</ele><time>2026-05-01T11:18:49Z</time></trkpt><trkpt lat="40.816225565021995" lon="8.434398668532607"><ele>63.33333333333333</ele><time>2026-05-01T11:18:50Z</time></trkpt><trkpt lat="40.816269125497826" lon="8.434156313883141"><ele>63.0</ele><time>2026-05-01T11:18:51Z</time></trkpt><trkpt lat="40.81631481964537" lon="8.433913025544099"><ele>61.66666666666667</ele><time>2026-05-01T11:18:52Z</time></trkpt><trkpt lat="40.8163587824648" lon="8.433670507585699"><ele>60.333333333333336</ele><time>2026-05-01T11:18:53Z</time></trkpt><trkpt lat="40.816405599018886" lon="8.433429456014531"><ele>59.0</ele><time>2026-05-01T11:18:54Z</time></trkpt><trkpt lat="40.81645073486441" lon="8.433190291152828"><ele>59.66666666666667</ele><time>2026-05-01T11:18:55Z</time></trkpt><trkpt lat="40.81649638599725" lon="8.43294970384163"><ele>60.33333333333333</ele><time>2026-05-01T11:18:56Z</time></trkpt><trkpt lat="40.81653938528042" lon="8.43270676810023"><ele>61.0</ele><time>2026-05-01T11:18:57Z</time></trkpt><trkpt lat="40.81658261845029" lon="8.432457949690503"><ele>61.0</ele><time>2026-05-01T11:18:58Z</time></trkpt><trkpt lat="40.816630809528306" lon="8.432214458564697"><ele>61.0</ele><time>2026-05-01T11:18:59Z</time></trkpt><trkpt lat="40.81667828129224" lon="8.431969023179464"><ele>61.0</ele><time>2026-05-01T11:19:00Z</time></trkpt><trkpt lat="40.81672535977714" lon="8.431726849268397"><ele>61.0</ele><time>2026-05-01T11:19:01Z</time></trkpt><trkpt lat="40.81677229824276" lon="8.431486565326118"><ele>61.0</ele><time>2026-05-01T11:19:02Z</time></trkpt><trkpt lat="40.81682008500561" lon="8.43124897431057"><ele>61.0</ele><time>2026-05-01T11:19:02.999Z</time></trkpt><trkpt lat="40.8168699601859" lon="8.431011318103948"><ele>60.0</ele><time>2026-05-01T11:19:03.999Z</time></trkpt><trkpt lat="40.81691747497589" lon="8.430768562963179"><ele>59.0</ele><time>2026-05-01T11:19:04.999Z</time></trkpt><trkpt lat="40.81696215372707" lon="8.430521043096034"><ele>58.0</ele><time>2026-05-01T11:19:05.999Z</time></trkpt><trkpt lat="40.817007223777885" lon="8.430277687332046"><ele>57.666666666666664</ele><time>2026-05-01T11:19:06.999Z</time></trkpt><trkpt lat="40.81704903873624" lon="8.430037770338128"><ele>57.33333333333333</ele><time>2026-05-01T11:19:07.999Z</time></trkpt><trkpt lat="40.81708839663093" lon="8.42979394210626"><ele>57.0</ele><time>2026-05-01T11:19:08.999Z</time></trkpt><trkpt lat="40.81713429736164" lon="8.429550556094508"><ele>57.66666666666667</ele><time>2026-05-01T11:19:09.999Z</time></trkpt><trkpt lat="40.81718078418905" lon="8.429314048182043"><ele>58.333333333333336</ele><time>2026-05-01T11:19:10.999Z</time></trkpt><trkpt lat="40.81722821212627" lon="8.429078512596748"><ele>59.0</ele><time>2026-05-01T11:19:11.999Z</time></trkpt><trkpt lat="40.817273286966724" lon="8.428843410703067"><ele>59.0</ele><time>2026-05-01T11:19:12.999Z</time></trkpt><trkpt lat="40.8173204851087" lon="8.428610153014203"><ele>59.0</ele><time>2026-05-01T11:19:13.999Z</time></trkpt><trkpt lat="40.81736406335374" lon="8.428376288756082"><ele>59.0</ele><time>2026-05-01T11:19:14.999Z</time></trkpt><trkpt lat="40.81740526593783" lon="8.42814369517467"><ele>58.333333333333336</ele><time>2026-05-01T11:19:15.999Z</time></trkpt><trkpt lat="40.81744901195144" lon="8.427913900413062"><ele>57.66666666666667</ele><time>2026-05-01T11:19:16.999Z</time></trkpt><trkpt lat="40.817493127246635" lon="8.427688677028037"><ele>57.0</ele><time>2026-05-01T11:19:17.999Z</time></trkpt><trkpt lat="40.81753210832746" lon="8.427463679303226"><ele>57.0</ele><time>2026-05-01T11:19:18.999Z</time></trkpt><trkpt lat="40.8175720191067" lon="8.427240470904598"><ele>57.0</ele><time>2026-05-01T11:19:19.999Z</time></trkpt><trkpt lat="40.81761468140896" lon="8.427013646030495"><ele>57.0</ele><time>2026-05-01T11:19:20.999Z</time></trkpt><trkpt lat="40.8176640757689" lon="8.426799083922708"><ele>56.66666666666667</ele><time>2026-05-01T11:19:21.999Z</time></trkpt><trkpt lat="40.817711978950285" lon="8.42658749638546"><ele>56.333333333333336</ele><time>2026-05-01T11:19:22.999Z</time></trkpt><trkpt lat="40.81776336603544" lon="8.426392440773249"><ele>56.0</ele><time>2026-05-01T11:19:23.999Z</time></trkpt><trkpt lat="40.81781875754475" lon="8.42621834023325"><ele>56.0</ele><time>2026-05-01T11:19:24.999Z</time></trkpt><trkpt lat="40.817869921585526" lon="8.426060217375072"><ele>56.0</ele><time>2026-05-01T11:19:25.999Z</time></trkpt><trkpt lat="40.81792221024453" lon="8.42590299832013"><ele>56.0</ele><time>2026-05-01T11:19:26.999Z</time></trkpt><trkpt lat="40.81798150042632" lon="8.42574520596054"><ele>56.0</ele><time>2026-05-01T11:19:27.999Z</time></trkpt><trkpt lat="40.818049003948346" lon="8.42558680181343"><ele>55.75</ele><time>2026-05-01T11:19:28.999Z</time></trkpt><trkpt lat="40.81812514495235" lon="8.425434667530954"><ele>55.5</ele><time>2026-05-01T11:19:29.999Z</time></trkpt><trkpt lat="40.818204111539664" lon="8.425282859707854"><ele>55.25</ele><time>2026-05-01T11:19:30.999Z</time></trkpt><trkpt lat="40.81828879756536" lon="8.425136736561198"><ele>55.0</ele><time>2026-05-01T11:19:31.999Z</time></trkpt><trkpt lat="40.81837660745961" lon="8.424992267414266"><ele>55.0</ele><time>2026-05-01T11:19:32.999Z</time></trkpt><trkpt lat="40.81846685452973" lon="8.424846866577028"><ele>55.0</ele><time>2026-05-01T11:19:33.999Z</time></trkpt><trkpt lat="40.81855922331566" lon="8.424698376239867"><ele>55.0</ele><time>2026-05-01T11:19:34.999Z</time></trkpt><trkpt lat="40.81865294961659" lon="8.424545415289776"><ele>55.0</ele><time>2026-05-01T11:19:35.999Z</time></trkpt><trkpt lat="40.8187444532276" lon="8.424387969980394"><ele>53.666666666666664</ele><time>2026-05-01T11:19:36.999Z</time></trkpt><trkpt lat="40.81883770735846" lon="8.424222913555958"><ele>52.33333333333333</ele><time>2026-05-01T11:19:37.999Z</time></trkpt><trkpt lat="40.81893427411744" lon="8.424054705604375"><ele>51.0</ele><time>2026-05-01T11:19:38.999Z</time></trkpt><trkpt lat="40.81902770315173" lon="8.42388553491716"><ele>51.0</ele><time>2026-05-01T11:19:39.999Z</time></trkpt><trkpt lat="40.819117273342194" lon="8.423712996272176"><ele>51.0</ele><time>2026-05-01T11:19:40.999Z</time></trkpt><trkpt lat="40.819203174852106" lon="8.4235312932186"><ele>51.0</ele><time>2026-05-01T11:19:41.999Z</time></trkpt><trkpt lat="40.81928502094216" lon="8.423338819674173"><ele>49.666666666666664</ele><time>2026-05-01T11:19:42.999Z</time></trkpt><trkpt lat="40.81936361446335" lon="8.423145418753919"><ele>48.33333333333333</ele><time>2026-05-01T11:19:43.999Z</time></trkpt><trkpt lat="40.81943917263299" lon="8.422945746648631"><ele>47.0</ele><time>2026-05-01T11:19:44.999Z</time></trkpt><trkpt lat="40.819513002332144" lon="8.422736540369714"><ele>47.0</ele><time>2026-05-01T11:19:45.999Z</time></trkpt><trkpt lat="40.81958402299776" lon="8.422528213061755"><ele>47.0</ele><time>2026-05-01T11:19:46.999Z</time></trkpt><trkpt lat="40.81965188568556" lon="8.422317475928589"><ele>47.0</ele><time>2026-05-01T11:19:47.999Z</time></trkpt><trkpt lat="40.81971293418845" lon="8.422110033649775"><ele>46.666666666666664</ele><time>2026-05-01T11:19:49Z</time></trkpt><trkpt lat="40.819773590998196" lon="8.421896636691457"><ele>46.333333333333336</ele><time>2026-05-01T11:19:50Z</time></trkpt><trkpt lat="40.819834090184806" lon="8.42168664180568"><ele>46.0</ele><time>2026-05-01T11:19:51Z</time></trkpt><trkpt lat="40.81989201390942" lon="8.421474010841116"><ele>45.66666666666667</ele><time>2026-05-01T11:19:52Z</time></trkpt><trkpt lat="40.81995340650412" lon="8.42126678194864"><ele>45.333333333333336</ele><time>2026-05-01T11:19:53Z</time></trkpt><trkpt lat="40.82001206357299" lon="8.421054252403176"><ele>45.0</ele><time>2026-05-01T11:19:54Z</time></trkpt><trkpt lat="40.82007269165959" lon="8.42084437032973"><ele>45.0</ele><time>2026-05-01T11:19:55Z</time></trkpt><trkpt lat="40.8201339436756" lon="8.420636423935584"><ele>45.0</ele><time>2026-05-01T11:19:56Z</time></trkpt><trkpt lat="40.82019633804908" lon="8.420427657588956"><ele>45.0</ele><time>2026-05-01T11:19:57Z</time></trkpt><trkpt lat="40.82025965573106" lon="8.420223639444217"><ele>43.666666666666664</ele><time>2026-05-01T11:19:58Z</time></trkpt><trkpt lat="40.820323933064856" lon="8.420025218330874"><ele>42.33333333333333</ele><time>2026-05-01T11:19:59Z</time></trkpt><trkpt lat="40.82039212120018" lon="8.419829124705814"><ele>41.0</ele><time>2026-05-01T11:20:00Z</time></trkpt><trkpt lat="40.82046228874076" lon="8.419637357754741"><ele>40.666666666666664</ele><time>2026-05-01T11:20:01Z</time></trkpt><trkpt lat="40.820537664733216" lon="8.419450557055596"><ele>40.333333333333336</ele><time>2026-05-01T11:20:02Z</time></trkpt><trkpt lat="40.82061810552356" lon="8.419275498196773"><ele>40.0</ele><time>2026-05-01T11:20:03Z</time></trkpt><trkpt lat="40.82069823457123" lon="8.419107847125753"><ele>40.0</ele><time>2026-05-01T11:20:04Z</time></trkpt><trkpt lat="40.820782524296334" lon="8.418945031158957"><ele>40.0</ele><time>2026-05-01T11:20:05Z</time></trkpt><trkpt lat="40.82086504395629" lon="8.418798482516904"><ele>40.0</ele><time>2026-05-01T11:20:06Z</time></trkpt><trkpt lat="40.82094711174197" lon="8.418658687671133"><ele>40.0</ele><time>2026-05-01T11:20:07Z</time></trkpt><trkpt lat="40.82102621501584" lon="8.418526514546729"><ele>39.2</ele><time>2026-05-01T11:20:08Z</time></trkpt><trkpt lat="40.821099669271455" lon="8.418404665779054"><ele>38.4</ele><time>2026-05-01T11:20:09Z</time></trkpt><trkpt lat="40.82117027582497" lon="8.418297240250379"><ele>37.6</ele><time>2026-05-01T11:20:10Z</time></trkpt><trkpt lat="40.82123393331086" lon="8.418214576144454"><ele>36.8</ele><time>2026-05-01T11:20:11Z</time></trkpt><trkpt lat="40.821294456407784" lon="8.418149398874345"><ele>36.0</ele><time>2026-05-01T11:20:12Z</time></trkpt><trkpt lat="40.82135931636931" lon="8.418103175832421"><ele>36.0</ele><time>2026-05-01T11:20:13Z</time></trkpt><trkpt lat="40.82142692700422" lon="8.418071679421082"><ele>36.0</ele><time>2026-05-01T11:20:14Z</time></trkpt><trkpt lat="40.82152887192858" lon="8.417990714507038"><ele>36.0</ele><time>2026-05-01T11:20:16Z</time></trkpt><trkpt lat="40.82161383431874" lon="8.417827374816875"><ele>36.0</ele><time>2026-05-01T11:20:18Z</time></trkpt><trkpt lat="40.8216352122803" lon="8.41772589625415"><ele>36.0</ele><time>2026-05-01T11:20:19Z</time></trkpt><trkpt lat="40.821658937170795" lon="8.417609175139521"><ele>36.2</ele><time>2026-05-01T11:20:20Z</time></trkpt><trkpt lat="40.82169760123239" lon="8.417491979277182"><ele>36.400000000000006</ele><time>2026-05-01T11:20:21Z</time></trkpt><trkpt lat="40.821752030825735" lon="8.417382607875478"><ele>36.6</ele><time>2026-05-01T11:20:22Z</time></trkpt><trkpt lat="40.82182134916217" lon="8.41727004448276"><ele>36.800000000000004</ele><time>2026-05-01T11:20:23Z</time></trkpt><trkpt lat="40.821896037108694" lon="8.417156963748816"><ele>37.0</ele><time>2026-05-01T11:20:24Z</time></trkpt><trkpt lat="40.82197428986418" lon="8.417039704623937"><ele>36.0</ele><time>2026-05-01T11:20:25Z</time></trkpt><trkpt lat="40.822054288503516" lon="8.416923482404039"><ele>35.0</ele><time>2026-05-01T11:20:26Z</time></trkpt><trkpt lat="40.822140761811944" lon="8.416793342934858"><ele>34.0</ele><time>2026-05-01T11:20:27Z</time></trkpt><trkpt lat="40.822229721435335" lon="8.416664469461386"><ele>33.0</ele><time>2026-05-01T11:20:28Z</time></trkpt><trkpt lat="40.82232301763596" lon="8.416533259168922"><ele>33.0</ele><time>2026-05-01T11:20:29Z</time></trkpt><trkpt lat="40.82241566452868" lon="8.416401020914872"><ele>33.0</ele><time>2026-05-01T11:20:30Z</time></trkpt><trkpt lat="40.82250705367671" lon="8.416271207782481"><ele>33.0</ele><time>2026-05-01T11:20:31Z</time></trkpt><trkpt lat="40.82259556750947" lon="8.416134505293714"><ele>33.0</ele><time>2026-05-01T11:20:32Z</time></trkpt><trkpt lat="40.8226822579876" lon="8.416000925971373"><ele>32.0</ele><time>2026-05-01T11:20:33Z</time></trkpt><trkpt lat="40.82276842838666" lon="8.41586931149983"><ele>31.0</ele><time>2026-05-01T11:20:34Z</time></trkpt><trkpt lat="40.822849016517814" lon="8.41573961019505"><ele>30.0</ele><time>2026-05-01T11:20:35Z</time></trkpt><trkpt lat="40.8229318944321" lon="8.415611691506024"><ele>29.0</ele><time>2026-05-01T11:20:36Z</time></trkpt><trkpt lat="40.82301684574066" lon="8.415482494134283"><ele>28.75</ele><time>2026-05-01T11:20:37Z</time></trkpt><trkpt lat="40.82310333497556" lon="8.415351981918773"><ele>28.5</ele><time>2026-05-01T11:20:38Z</time></trkpt><trkpt lat="40.823189567296026" lon="8.41521614936145"><ele>28.25</ele><time>2026-05-01T11:20:39Z</time></trkpt><trkpt lat="40.82327315947695" lon="8.415078785159732"><ele>28.0</ele><time>2026-05-01T11:20:40Z</time></trkpt><trkpt lat="40.823354138838106" lon="8.414940613013382"><ele>28.0</ele><time>2026-05-01T11:20:41Z</time></trkpt><trkpt lat="40.82343179302161" lon="8.41480305488678"><ele>28.0</ele><time>2026-05-01T11:20:42Z</time></trkpt><trkpt lat="40.823512307593894" lon="8.414669323144155"><ele>28.0</ele><time>2026-05-01T11:20:43Z</time></trkpt><trkpt lat="40.82359649210754" lon="8.414541344183197"><ele>28.0</ele><time>2026-05-01T11:20:44Z</time></trkpt><trkpt lat="40.82368411055108" lon="8.414410250761511"><ele>28.0</ele><time>2026-05-01T11:20:45Z</time></trkpt><trkpt lat="40.823768692561835" lon="8.414277923771769"><ele>28.0</ele><time>2026-05-01T11:20:46Z</time></trkpt><trkpt lat="40.823855524795945" lon="8.414143116614673"><ele>28.0</ele><time>2026-05-01T11:20:47Z</time></trkpt><trkpt lat="40.82394608761822" lon="8.414012726946956"><ele>28.0</ele><time>2026-05-01T11:20:48Z</time></trkpt><trkpt lat="40.82403750922746" lon="8.413878952063575"><ele>27.75</ele><time>2026-05-01T11:20:49Z</time></trkpt><trkpt lat="40.82412927194428" lon="8.413745071367835"><ele>27.5</ele><time>2026-05-01T11:20:50Z</time></trkpt><trkpt lat="40.824220808634664" lon="8.413608190851644"><ele>27.25</ele><time>2026-05-01T11:20:51Z</time></trkpt><trkpt lat="40.82431022457448" lon="8.413464166827156"><ele>27.0</ele><time>2026-05-01T11:20:52Z</time></trkpt><trkpt lat="40.82439767038006" lon="8.413322812737517"><ele>26.75</ele><time>2026-05-01T11:20:53Z</time></trkpt><trkpt lat="40.8244885363742" lon="8.413182348902975"><ele>26.5</ele><time>2026-05-01T11:20:54Z</time></trkpt><trkpt lat="40.82457795340825" lon="8.413043180816091"><ele>26.25</ele><time>2026-05-01T11:20:55Z</time></trkpt><trkpt lat="40.82466921138037" lon="8.412910363274685"><ele>26.0</ele><time>2026-05-01T11:20:56Z</time></trkpt><trkpt lat="40.824752824144625" lon="8.412780327310966"><ele>25.75</ele><time>2026-05-01T11:20:57Z</time></trkpt><trkpt lat="40.82483420624686" lon="8.412659435058941"><ele>25.5</ele><time>2026-05-01T11:20:58Z</time></trkpt><trkpt lat="40.82491388846552" lon="8.41254038419462"><ele>25.25</ele><time>2026-05-01T11:20:59Z</time></trkpt><trkpt lat="40.82498884238402" lon="8.41243665084592"><ele>25.0</ele><time>2026-05-01T11:21:00.001Z</time></trkpt><trkpt lat="40.825060618871944" lon="8.412338566010751"><ele>25.0</ele><time>2026-05-01T11:21:01.001Z</time></trkpt><trkpt lat="40.82513218274421" lon="8.412229695735572"><ele>25.0</ele><time>2026-05-01T11:21:02.001Z</time></trkpt><trkpt lat="40.82520117052865" lon="8.412122803599791"><ele>25.0</ele><time>2026-05-01T11:21:03.001Z</time></trkpt><trkpt lat="40.825262866746435" lon="8.412031038082056"><ele>25.0</ele><time>2026-05-01T11:21:04.001Z</time></trkpt><trkpt lat="40.82532232460872" lon="8.41193573024519"><ele>25.0</ele><time>2026-05-01T11:21:05.001Z</time></trkpt><trkpt lat="40.82538495113034" lon="8.411834338088909"><ele>24.6</ele><time>2026-05-01T11:21:06.001Z</time></trkpt><trkpt lat="40.825453450399685" lon="8.41172681422888"><ele>24.2</ele><time>2026-05-01T11:21:07.001Z</time></trkpt><trkpt lat="40.82552495484906" lon="8.411615293077771"><ele>23.799999999999997</ele><time>2026-05-01T11:21:08.001Z</time></trkpt><trkpt lat="40.825596617429106" lon="8.41149988242465"><ele>23.4</ele><time>2026-05-01T11:21:08.999Z</time></trkpt><trkpt lat="40.82567622050381" lon="8.411387561197342"><ele>23.0</ele><time>2026-05-01T11:21:09.998Z</time></trkpt><trkpt lat="40.82575964602724" lon="8.411273749246424"><ele>23.0</ele><time>2026-05-01T11:21:10.998Z</time></trkpt><trkpt lat="40.82583825675762" lon="8.411159752490965"><ele>23.0</ele><time>2026-05-01T11:21:11.999Z</time></trkpt><trkpt lat="40.82591673345352" lon="8.411038238013335"><ele>23.0</ele><time>2026-05-01T11:21:12.998Z</time></trkpt><trkpt lat="40.82599680272636" lon="8.410918924981257"><ele>23.0</ele><time>2026-05-01T11:21:13.998Z</time></trkpt><trkpt lat="40.826072429729216" lon="8.410794954720137"><ele>22.75</ele><time>2026-05-01T11:21:14.999Z</time></trkpt><trkpt lat="40.82615243209293" lon="8.410680805775598"><ele>22.5</ele><time>2026-05-01T11:21:15.999Z</time></trkpt><trkpt lat="40.82622792934991" lon="8.410565867155462"><ele>22.25</ele><time>2026-05-01T11:21:16.999Z</time></trkpt><trkpt lat="40.82629999885228" lon="8.410442955308458"><ele>22.0</ele><time>2026-05-01T11:21:17.999Z</time></trkpt><trkpt lat="40.82637509709204" lon="8.41031777083712"><ele>22.0</ele><time>2026-05-01T11:21:18.999Z</time></trkpt><trkpt lat="40.82645170210949" lon="8.410193682460847"><ele>22.0</ele><time>2026-05-01T11:21:19.999Z</time></trkpt><trkpt lat="40.82653441373287" lon="8.410073593056625"><ele>22.0</ele><time>2026-05-01T11:21:20.999Z</time></trkpt><trkpt lat="40.826611453219044" lon="8.409945697069947"><ele>22.0</ele><time>2026-05-01T11:21:21.999Z</time></trkpt><trkpt lat="40.826684512431434" lon="8.409830178724734"><ele>22.0</ele><time>2026-05-01T11:21:22.999Z</time></trkpt><trkpt lat="40.826756810976" lon="8.409718068050722"><ele>22.0</ele><time>2026-05-01T11:21:23.999Z</time></trkpt><trkpt lat="40.8268297164046" lon="8.409600805659938"><ele>22.0</ele><time>2026-05-01T11:21:24.999Z</time></trkpt><trkpt lat="40.82690919876413" lon="8.409485982393178"><ele>22.0</ele><time>2026-05-01T11:21:25.999Z</time></trkpt><trkpt lat="40.82698973610482" lon="8.409372881515017"><ele>22.0</ele><time>2026-05-01T11:21:26.999Z</time></trkpt><trkpt lat="40.82706946628504" lon="8.409256472239907"><ele>22.0</ele><time>2026-05-01T11:21:27.999Z</time></trkpt><trkpt lat="40.82715000516698" lon="8.409137009522501"><ele>22.0</ele><time>2026-05-01T11:21:28.999Z</time></trkpt><trkpt lat="40.827226264148734" lon="8.40901549967065"><ele>22.0</ele><time>2026-05-01T11:21:29.999Z</time></trkpt><trkpt lat="40.82730338608576" lon="8.408897590660537"><ele>21.6</ele><time>2026-05-01T11:21:30.999Z</time></trkpt><trkpt lat="40.82737937125782" lon="8.408784388835093"><ele>21.200000000000003</ele><time>2026-05-01T11:21:31.999Z</time></trkpt><trkpt lat="40.82744568973482" lon="8.408676494138023"><ele>20.8</ele><time>2026-05-01T11:21:32.999Z</time></trkpt><trkpt lat="40.827517090179434" lon="8.408567864101691"><ele>20.4</ele><time>2026-05-01T11:21:33.999Z</time></trkpt><trkpt lat="40.827591480234716" lon="8.408457994672624"><ele>20.0</ele><time>2026-05-01T11:21:34.999Z</time></trkpt><trkpt lat="40.827670813219626" lon="8.40833980322816"><ele>20.0</ele><time>2026-05-01T11:21:35.999Z</time></trkpt><trkpt lat="40.827749051079586" lon="8.408226368147648"><ele>20.0</ele><time>2026-05-01T11:21:36.999Z</time></trkpt><trkpt lat="40.827826725266824" lon="8.408111127070669"><ele>20.0</ele><time>2026-05-01T11:21:37.999Z</time></trkpt><trkpt lat="40.82789862319887" lon="8.407994281722168"><ele>20.0</ele><time>2026-05-01T11:21:38.999Z</time></trkpt><trkpt lat="40.82797241777506" lon="8.407870312210544"><ele>20.5</ele><time>2026-05-01T11:21:39.999Z</time></trkpt><trkpt lat="40.82804523047347" lon="8.407742885587256"><ele>21.0</ele><time>2026-05-01T11:21:40.999Z</time></trkpt><trkpt lat="40.82811762495538" lon="8.407629325743995"><ele>21.5</ele><time>2026-05-01T11:21:41.999Z</time></trkpt><trkpt lat="40.828191665305575" lon="8.40752075346817"><ele>22.0</ele><time>2026-05-01T11:21:42.999Z</time></trkpt><trkpt lat="40.8282647682864" lon="8.407401269702333"><ele>22.0</ele><time>2026-05-01T11:21:43.999Z</time></trkpt><trkpt lat="40.82834426319435" lon="8.407281965984614"><ele>22.0</ele><time>2026-05-01T11:21:44.999Z</time></trkpt><trkpt lat="40.828415150811196" lon="8.407166832438106"><ele>22.0</ele><time>2026-05-01T11:21:45.999Z</time></trkpt><trkpt lat="40.828501535897566" lon="8.40703535852394"><ele>22.0</ele><time>2026-05-01T11:21:46.999Z</time></trkpt><trkpt lat="40.82858030832779" lon="8.406915462165765"><ele>21.8</ele><time>2026-05-01T11:21:47.999Z</time></trkpt><trkpt lat="40.82865209809001" lon="8.406819654094932"><ele>21.6</ele><time>2026-05-01T11:21:48.999Z</time></trkpt><trkpt lat="40.82871745894921" lon="8.406717132963282"><ele>21.400000000000002</ele><time>2026-05-01T11:21:49.999Z</time></trkpt><trkpt lat="40.82878642598434" lon="8.406606699249052"><ele>21.200000000000003</ele><time>2026-05-01T11:21:50.999Z</time></trkpt><trkpt lat="40.82885443139078" lon="8.406512734095859"><ele>21.0</ele><time>2026-05-01T11:21:51.999Z</time></trkpt><trkpt lat="40.8289233004547" lon="8.406400705555113"><ele>21.200000000000003</ele><time>2026-05-01T11:21:52.999Z</time></trkpt><trkpt lat="40.828990895993094" lon="8.406282052757012"><ele>21.400000000000002</ele><time>2026-05-01T11:21:53.999Z</time></trkpt><trkpt lat="40.82906093690012" lon="8.406169496840937"><ele>21.6</ele><time>2026-05-01T11:21:54.999Z</time></trkpt><trkpt lat="40.82913743285498" lon="8.406062490709767"><ele>21.8</ele><time>2026-05-01T11:21:55.999Z</time></trkpt><trkpt lat="40.829211331217735" lon="8.405954112531907"><ele>22.0</ele><time>2026-05-01T11:21:56.999Z</time></trkpt><trkpt lat="40.829285094056246" lon="8.405842829382877"><ele>21.400000000000002</ele><time>2026-05-01T11:21:57.999Z</time></trkpt><trkpt lat="40.82935604026027" lon="8.40572782537311"><ele>20.8</ele><time>2026-05-01T11:21:58.999Z</time></trkpt><trkpt lat="40.82942972379279" lon="8.405619911102882"><ele>20.2</ele><time>2026-05-01T11:21:59.999Z</time></trkpt><trkpt lat="40.82949772087621" lon="8.405516995773963"><ele>19.6</ele><time>2026-05-01T11:22:01Z</time></trkpt><trkpt lat="40.82956332205578" lon="8.405416750788124"><ele>19.0</ele><time>2026-05-01T11:22:02Z</time></trkpt><trkpt lat="40.82962548492882" lon="8.405320249300987"><ele>19.0</ele><time>2026-05-01T11:22:03Z</time></trkpt><trkpt lat="40.82967859296305" lon="8.405239579043313"><ele>19.0</ele><time>2026-05-01T11:22:04Z</time></trkpt><trkpt lat="40.82973547519727" lon="8.405158206095907"><ele>19.0</ele><time>2026-05-01T11:22:06Z</time></trkpt><trkpt lat="40.829812586623525" lon="8.40509946491434"><ele>19.0</ele><time>2026-05-01T11:22:09Z</time></trkpt><trkpt lat="40.82983357676067" lon="8.40498706103508"><ele>19.0</ele><time>2026-05-01T11:22:12Z</time></trkpt><trkpt lat="40.829774995800385" lon="8.40508376112155"><ele>19.0</ele><time>2026-05-01T11:22:17Z</time></trkpt><trkpt lat="40.829594628727385" lon="8.404916584254451"><ele>19.0</ele><time>2026-05-01T11:22:21Z</time></trkpt><trkpt lat="40.82949165512476" lon="8.404823990511273"><ele>19.0</ele><time>2026-05-01T11:22:23Z</time></trkpt><trkpt lat="40.8294525746536" lon="8.404751850108289"><ele>19.0</ele><time>2026-05-01T11:22:24Z</time></trkpt><trkpt lat="40.829380371065874" lon="8.404631672844596"><ele>19.0</ele><time>2026-05-01T11:22:26Z</time></trkpt><trkpt lat="40.82930712644837" lon="8.40455280269571"><ele>19.0</ele><time>2026-05-01T11:22:28Z</time></trkpt><trkpt lat="40.82925975731322" lon="8.404492330533015"><ele>18.833333333333332</ele><time>2026-05-01T11:22:30Z</time></trkpt><trkpt lat="40.829173769324996" lon="8.404530475364796"><ele>18.666666666666664</ele><time>2026-05-01T11:24:43Z</time></trkpt><trkpt lat="40.82914255916467" lon="8.404609550704787"><ele>18.5</ele><time>2026-05-01T11:24:48Z</time></trkpt><trkpt lat="40.82913523712664" lon="8.404692803769658"><ele>18.333333333333332</ele><time>2026-05-01T11:25:28Z</time></trkpt><trkpt lat="40.82910891203368" lon="8.404796057693037"><ele>18.166666666666668</ele><time>2026-05-01T11:25:46Z</time></trkpt><trkpt lat="40.82915506691717" lon="8.40467212393147"><ele>18.0</ele><time>2026-05-01T11:26:22Z</time></trkpt><trkpt lat="40.82918276414232" lon="8.404587111998865"><ele>18.000000000000004</ele><time>2026-05-01T11:26:27Z</time></trkpt><trkpt lat="40.82917870005303" lon="8.404502112866462"><ele>18.0</ele><time>2026-05-01T11:26:55.001Z</time></trkpt><trkpt lat="40.82923070998492" lon="8.404442775912008"><ele>18.0</ele><time>2026-05-01T11:27:33Z</time></trkpt><trkpt lat="40.82917558638464" lon="8.404498900649127"><ele>18.0</ele><time>2026-05-01T11:27:45Z</time></trkpt><trkpt lat="40.8291365677684" lon="8.404564662346154"><ele>18.0</ele><time>2026-05-01T11:29:16.001Z</time></trkpt><trkpt lat="40.82918084157971" lon="8.40449725495632"><ele>18.000000000000004</ele><time>2026-05-01T11:30:07Z</time></trkpt><trkpt lat="40.829251186723724" lon="8.404470044706073"><ele>18.0</ele><time>2026-05-01T11:36:04.999Z</time></trkpt><trkpt lat="40.82921263396528" lon="8.404548372760386"><ele>18.0</ele><time>2026-05-01T11:36:42Z</time></trkpt><trkpt lat="40.82916084738619" lon="8.404614602148568"><ele>18.0</ele><time>2026-05-01T11:36:56.001Z</time></trkpt><trkpt lat="40.82918031931581" lon="8.404694073837367"><ele>18.0</ele><time>2026-05-01T11:37:00.001Z</time></trkpt><trkpt lat="40.829201291787264" lon="8.40458873519662"><ele>18.0</ele><time>2026-05-01T11:37:38.001Z</time></trkpt><trkpt lat="40.82929567034785" lon="8.404646420026408"><ele>18.0</ele><time>2026-05-01T11:37:40.001Z</time></trkpt><trkpt lat="40.829376547137585" lon="8.404714245387256"><ele>18.0</ele><time>2026-05-01T11:37:42.001Z</time></trkpt><trkpt lat="40.82945124200873" lon="8.40478496548225"><ele>18.166666666666668</ele><time>2026-05-01T11:37:44.001Z</time></trkpt><trkpt lat="40.82952835479022" lon="8.404871422233008"><ele>18.333333333333332</ele><time>2026-05-01T11:37:46.002Z</time></trkpt><trkpt lat="40.82958476288526" lon="8.404942248654743"><ele>18.5</ele><time>2026-05-01T11:37:48.002Z</time></trkpt><trkpt lat="40.8296449743804" lon="8.405005572961036"><ele>18.666666666666664</ele><time>2026-05-01T11:37:50.002Z</time></trkpt><trkpt lat="40.82970116750217" lon="8.405064089872157"><ele>18.833333333333332</ele><time>2026-05-01T11:37:53.002Z</time></trkpt><trkpt lat="40.829794557488384" lon="8.40505198281071"><ele>19.0</ele><time>2026-05-01T11:37:56.999Z</time></trkpt><trkpt lat="40.82985691464951" lon="8.404966531867045"><ele>19.0</ele><time>2026-05-01T11:37:58.999Z</time></trkpt><trkpt lat="40.829936847068126" lon="8.404864093887292"><ele>19.0</ele><time>2026-05-01T11:38:00.999Z</time></trkpt><trkpt lat="40.82998527050719" lon="8.404794337730996"><ele>19.0</ele><time>2026-05-01T11:38:01.999Z</time></trkpt><trkpt lat="40.830038662613156" lon="8.404727253678356"><ele>19.0</ele><time>2026-05-01T11:38:02.999Z</time></trkpt><trkpt lat="40.830073012524075" lon="8.40465418789877"><ele>19.0</ele><time>2026-05-01T11:38:03.999Z</time></trkpt><trkpt lat="40.8301287667376" lon="8.404612731768768"><ele>19.0</ele><time>2026-05-01T11:38:04.999Z</time></trkpt><trkpt lat="40.83021256238468" lon="8.404526900897263"><ele>18.666666666666664</ele><time>2026-05-01T11:38:06.999Z</time></trkpt><trkpt lat="40.830299751829806" lon="8.404463713777176"><ele>18.333333333333332</ele><time>2026-05-01T11:38:08.999Z</time></trkpt><trkpt lat="40.83034054396831" lon="8.404384057208125"><ele>18.0</ele><time>2026-05-01T11:38:10.999Z</time></trkpt><trkpt lat="40.83031527949011" lon="8.404303682082347"><ele>17.666666666666668</ele><time>2026-05-01T11:38:12.999Z</time></trkpt><trkpt lat="40.830247824971806" lon="8.404280619119454"><ele>17.333333333333336</ele><time>2026-05-01T11:38:14.999Z</time></trkpt><trkpt lat="40.830169042950665" lon="8.40421536894022"><ele>17.0</ele><time>2026-05-01T11:38:16.999Z</time></trkpt><trkpt lat="40.830114378085945" lon="8.40416763982958"><ele>17.0</ele><time>2026-05-01T11:38:17.999Z</time></trkpt><trkpt lat="40.830062534657344" lon="8.404112130949972"><ele>17.0</ele><time>2026-05-01T11:38:18.999Z</time></trkpt><trkpt lat="40.83000344912056" lon="8.404046771210668"><ele>17.0</ele><time>2026-05-01T11:38:19.999Z</time></trkpt><trkpt lat="40.829940971711885" lon="8.4039804492119"><ele>17.0</ele><time>2026-05-01T11:38:20.999Z</time></trkpt><trkpt lat="40.82989355690625" lon="8.403914439781614"><ele>17.0</ele><time>2026-05-01T11:38:21.999Z</time></trkpt><trkpt lat="40.82982786950592" lon="8.403843847983365"><ele>17.0</ele><time>2026-05-01T11:38:22.999Z</time></trkpt><trkpt lat="40.829768528291495" lon="8.403767410511966"><ele>17.166666666666668</ele><time>2026-05-01T11:38:23.999Z</time></trkpt><trkpt lat="40.82971256339254" lon="8.40369784687588"><ele>17.333333333333336</ele><time>2026-05-01T11:38:24.999Z</time></trkpt><trkpt lat="40.82965146453014" lon="8.403632420968872"><ele>17.5</ele><time>2026-05-01T11:38:25.999Z</time></trkpt><trkpt lat="40.82958368637686" lon="8.403557218825199"><ele>17.666666666666668</ele><time>2026-05-01T11:38:26.999Z</time></trkpt><trkpt lat="40.8295187066297" lon="8.403482747407876"><ele>17.833333333333332</ele><time>2026-05-01T11:38:27.999Z</time></trkpt><trkpt lat="40.82945350292077" lon="8.403404571849498"><ele>18.0</ele><time>2026-05-01T11:38:28.999Z</time></trkpt><trkpt lat="40.82937866229184" lon="8.403325185223762"><ele>18.0</ele><time>2026-05-01T11:38:29.999Z</time></trkpt><trkpt lat="40.8293121946919" lon="8.403237666593961"><ele>18.0</ele><time>2026-05-01T11:38:30.999Z</time></trkpt><trkpt lat="40.829240922060656" lon="8.403159274572056"><ele>18.0</ele><time>2026-05-01T11:38:31.999Z</time></trkpt><trkpt lat="40.82917502187351" lon="8.403084026273504"><ele>18.0</ele><time>2026-05-01T11:38:32.999Z</time></trkpt><trkpt lat="40.82911302721092" lon="8.403015148325702"><ele>18.0</ele><time>2026-05-01T11:38:33.999Z</time></trkpt><trkpt lat="40.8290632634203" lon="8.402945011238108"><ele>18.0</ele><time>2026-05-01T11:38:34.999Z</time></trkpt><trkpt lat="40.8290080855304" lon="8.402815948529048"><ele>18.0</ele><time>2026-05-01T11:38:37Z</time></trkpt><trkpt lat="40.829011471990164" lon="8.402679943100718"><ele>18.0</ele><time>2026-05-01T11:38:39Z</time></trkpt><trkpt lat="40.829074722755884" lon="8.402587968193846"><ele>18.0</ele><time>2026-05-01T11:38:41Z</time></trkpt><trkpt lat="40.82918282044709" lon="8.402530035476007"><ele>18.0</ele><time>2026-05-01T11:38:43Z</time></trkpt><trkpt lat="40.82932724309721" lon="8.40241831105922"><ele>18.0</ele><time>2026-05-01T11:38:45Z</time></trkpt><trkpt lat="40.829408805356465" lon="8.40234790188141"><ele>18.0</ele><time>2026-05-01T11:38:46Z</time></trkpt><trkpt lat="40.82950095114796" lon="8.402265612865913"><ele>18.0</ele><time>2026-05-01T11:38:47Z</time></trkpt><trkpt lat="40.82959215963154" lon="8.402181994249373"><ele>18.0</ele><time>2026-05-01T11:38:48Z</time></trkpt><trkpt lat="40.82968580243979" lon="8.40209835181489"><ele>18.0</ele><time>2026-05-01T11:38:49Z</time></trkpt><trkpt lat="40.829786903905195" lon="8.402003872623457"><ele>18.0</ele><time>2026-05-01T11:38:50Z</time></trkpt><trkpt lat="40.82988357926609" lon="8.401912168942989"><ele>18.0</ele><time>2026-05-01T11:38:51Z</time></trkpt><trkpt lat="40.82997405430914" lon="8.401823146507109"><ele>18.0</ele><time>2026-05-01T11:38:52Z</time></trkpt><trkpt lat="40.83007663766761" lon="8.401731324335291"><ele>18.0</ele><time>2026-05-01T11:38:53Z</time></trkpt><trkpt lat="40.830169518860615" lon="8.401641951026786"><ele>18.0</ele><time>2026-05-01T11:38:54Z</time></trkpt><trkpt lat="40.83024053896765" lon="8.401569310841214"><ele>18.0</ele><time>2026-05-01T11:38:55Z</time></trkpt><trkpt lat="40.83030080359098" lon="8.401508554644572"><ele>18.0</ele><time>2026-05-01T11:38:56Z</time></trkpt><trkpt lat="40.830261112795036" lon="8.401316737930015"><ele>18.0</ele><time>2026-05-01T11:39:01Z</time></trkpt><trkpt lat="40.83019926141111" lon="8.40122486657852"><ele>18.0</ele><time>2026-05-01T11:39:02Z</time></trkpt><trkpt lat="40.83013652103917" lon="8.401122214189506"><ele>18.0</ele><time>2026-05-01T11:39:03Z</time></trkpt><trkpt lat="40.83008020199104" lon="8.401016600496034"><ele>18.0</ele><time>2026-05-01T11:39:04Z</time></trkpt><trkpt lat="40.83000216877812" lon="8.400898465648034"><ele>18.0</ele><time>2026-05-01T11:39:05Z</time></trkpt><trkpt lat="40.82993498537906" lon="8.4007834230087"><ele>18.0</ele><time>2026-05-01T11:39:06Z</time></trkpt><trkpt lat="40.829866989993754" lon="8.400666989915253"><ele>18.0</ele><time>2026-05-01T11:39:07Z</time></trkpt><trkpt lat="40.829802131574" lon="8.400555928505451"><ele>17.833333333333332</ele><time>2026-05-01T11:39:08Z</time></trkpt><trkpt lat="40.82973891514952" lon="8.400447678777352"><ele>17.666666666666668</ele><time>2026-05-01T11:39:09Z</time></trkpt><trkpt lat="40.829676390425846" lon="8.400340613489952"><ele>17.5</ele><time>2026-05-01T11:39:10Z</time></trkpt><trkpt lat="40.829636445962976" lon="8.400238712624521"><ele>17.333333333333336</ele><time>2026-05-01T11:39:11Z</time></trkpt><trkpt lat="40.829569767547596" lon="8.400181762554855"><ele>17.166666666666668</ele><time>2026-05-01T11:39:12Z</time></trkpt><trkpt lat="40.82952575817865" lon="8.400111183493499"><ele>17.0</ele><time>2026-05-01T11:39:13Z</time></trkpt><trkpt lat="40.82948410842038" lon="8.400047846314123"><ele>17.0</ele><time>2026-05-01T11:39:14Z</time></trkpt><trkpt lat="40.82942055981835" lon="8.399925514467377"><ele>17.0</ele><time>2026-05-01T11:39:16Z</time></trkpt><trkpt lat="40.829366595612264" lon="8.399818884610063"><ele>17.0</ele><time>2026-05-01T11:39:18Z</time></trkpt><trkpt lat="40.82932063942627" lon="8.399735114307337"><ele>17.0</ele><time>2026-05-01T11:39:20Z</time></trkpt><trkpt lat="40.82922744591049" lon="8.39974006060901"><ele>17.0</ele><time>2026-05-01T11:39:22.001Z</time></trkpt><trkpt lat="40.829115349090934" lon="8.39976283572519"><ele>15.833333333333334</ele><time>2026-05-01T11:39:24.001Z</time></trkpt><trkpt lat="40.82903895829985" lon="8.3997654014313"><ele>14.666666666666668</ele><time>2026-05-01T11:39:25.001Z</time></trkpt><trkpt lat="40.8289707946164" lon="8.399725259273122"><ele>13.5</ele><time>2026-05-01T11:39:26.001Z</time></trkpt><trkpt lat="40.828905763816756" lon="8.399705167687454"><ele>12.333333333333334</ele><time>2026-05-01T11:39:27.001Z</time></trkpt><trkpt lat="40.828829279462916" lon="8.399597057868405"><ele>11.166666666666668</ele><time>2026-05-01T11:39:29.001Z</time></trkpt><trkpt lat="40.82883130667001" lon="8.399469695732234"><ele>10.0</ele><time>2026-05-01T11:39:31.001Z</time></trkpt><trkpt lat="40.828830160414654" lon="8.3993840141965"><ele>10.0</ele><time>2026-05-01T11:39:32.001Z</time></trkpt><trkpt lat="40.828821073547346" lon="8.399290943808264"><ele>10.0</ele><time>2026-05-01T11:39:33.001Z</time></trkpt><trkpt lat="40.82888751775479" lon="8.39916892536061"><ele>10.0</ele><time>2026-05-01T11:39:34.001Z</time></trkpt><trkpt lat="40.828910697936536" lon="8.399034945747504"><ele>10.0</ele><time>2026-05-01T11:39:35.001Z</time></trkpt><trkpt lat="40.828939194628056" lon="8.398879529582766"><ele>10.0</ele><time>2026-05-01T11:39:36.001Z</time></trkpt><trkpt lat="40.828975732802704" lon="8.398732322016894"><ele>10.25</ele><time>2026-05-01T11:39:37.001Z</time></trkpt><trkpt lat="40.82900839883559" lon="8.398561435561573"><ele>10.5</ele><time>2026-05-01T11:39:38.001Z</time></trkpt><trkpt lat="40.82904760747954" lon="8.398394540462064"><ele>10.75</ele><time>2026-05-01T11:39:39.001Z</time></trkpt><trkpt lat="40.82908970765003" lon="8.398210884467517"><ele>11.0</ele><time>2026-05-01T11:39:40.001Z</time></trkpt><trkpt lat="40.829131604412964" lon="8.398015464741457"><ele>10.666666666666666</ele><time>2026-05-01T11:39:41.001Z</time></trkpt><trkpt lat="40.829176958387116" lon="8.397809238914954"><ele>10.333333333333334</ele><time>2026-05-01T11:39:42.001Z</time></trkpt><trkpt lat="40.829225981764004" lon="8.39761741387732"><ele>10.0</ele><time>2026-05-01T11:39:43.001Z</time></trkpt><trkpt lat="40.82928950791448" lon="8.397424661710097"><ele>11.666666666666668</ele><time>2026-05-01T11:39:44.001Z</time></trkpt><trkpt lat="40.829349373116365" lon="8.397237273373126"><ele>13.333333333333334</ele><time>2026-05-01T11:39:45.001Z</time></trkpt><trkpt lat="40.82941897326132" lon="8.397046346631893"><ele>15.0</ele><time>2026-05-01T11:39:46.001Z</time></trkpt><trkpt lat="40.82949248757764" lon="8.396860580728534"><ele>15.0</ele><time>2026-05-01T11:39:47.001Z</time></trkpt><trkpt lat="40.829573123294175" lon="8.39668195648604"><ele>15.0</ele><time>2026-05-01T11:39:48.001Z</time></trkpt><trkpt lat="40.82966492696569" lon="8.396508376093447"><ele>15.0</ele><time>2026-05-01T11:39:49.001Z</time></trkpt><trkpt lat="40.829754480289175" lon="8.396338306281287"><ele>13.0</ele><time>2026-05-01T11:39:50.001Z</time></trkpt><trkpt lat="40.82984114371122" lon="8.396166651772639"><ele>11.0</ele><time>2026-05-01T11:39:51.001Z</time></trkpt><trkpt lat="40.82992672135792" lon="8.395993013092713"><ele>9.0</ele><time>2026-05-01T11:39:52.001Z</time></trkpt><trkpt lat="40.830013287774385" lon="8.39582716183598"><ele>9.0</ele><time>2026-05-01T11:39:53.001Z</time></trkpt><trkpt lat="40.83010016522295" lon="8.395675776288947"><ele>9.0</ele><time>2026-05-01T11:39:54.001Z</time></trkpt><trkpt lat="40.83018338063105" lon="8.39552351077271"><ele>9.0</ele><time>2026-05-01T11:39:55.001Z</time></trkpt><trkpt lat="40.83027090526169" lon="8.395361121872353"><ele>9.0</ele><time>2026-05-01T11:39:56.001Z</time></trkpt><trkpt lat="40.83035384004076" lon="8.395215826174164"><ele>8.5</ele><time>2026-05-01T11:39:57.001Z</time></trkpt><trkpt lat="40.83043861975669" lon="8.395062953977938"><ele>8.0</ele><time>2026-05-01T11:39:58.001Z</time></trkpt><trkpt lat="40.83052027729313" lon="8.394910756879586"><ele>7.5</ele><time>2026-05-01T11:39:59.001Z</time></trkpt><trkpt lat="40.830598229065544" lon="8.394751581798992"><ele>7.0</ele><time>2026-05-01T11:40:00.001Z</time></trkpt><trkpt lat="40.830673985203404" lon="8.394599499129365"><ele>7.0</ele><time>2026-05-01T11:40:01.001Z</time></trkpt><trkpt lat="40.830752476240995" lon="8.394446379418685"><ele>7.0</ele><time>2026-05-01T11:40:02.001Z</time></trkpt><trkpt lat="40.83083331322322" lon="8.394298309848208"><ele>7.0</ele><time>2026-05-01T11:40:02.998Z</time></trkpt><trkpt lat="40.83090881750056" lon="8.394149760542607"><ele>7.0</ele><time>2026-05-01T11:40:03.998Z</time></trkpt><trkpt lat="40.83099490642023" lon="8.393991454891836"><ele>7.75</ele><time>2026-05-01T11:40:04.998Z</time></trkpt><trkpt lat="40.831075228503735" lon="8.393840263511857"><ele>8.5</ele><time>2026-05-01T11:40:05.998Z</time></trkpt><trkpt lat="40.831156410085484" lon="8.393679773190208"><ele>9.25</ele><time>2026-05-01T11:40:06.998Z</time></trkpt><trkpt lat="40.831237075233595" lon="8.393514164564618"><ele>10.0</ele><time>2026-05-01T11:40:07.998Z</time></trkpt><trkpt lat="40.83131143845124" lon="8.393355717191453"><ele>12.0</ele><time>2026-05-01T11:40:08.998Z</time></trkpt><trkpt lat="40.831397924284985" lon="8.393184618667968"><ele>14.0</ele><time>2026-05-01T11:40:09.998Z</time></trkpt><trkpt lat="40.83148617759781" lon="8.39301340784898"><ele>16.0</ele><time>2026-05-01T11:40:10.998Z</time></trkpt><trkpt lat="40.83157354526441" lon="8.392849125782107"><ele>16.333333333333332</ele><time>2026-05-01T11:40:11.998Z</time></trkpt><trkpt lat="40.8316666656886" lon="8.392672453187355"><ele>16.666666666666668</ele><time>2026-05-01T11:40:12.998Z</time></trkpt><trkpt lat="40.83176511940693" lon="8.392490666603997"><ele>17.0</ele><time>2026-05-01T11:40:13.998Z</time></trkpt><trkpt lat="40.83186863031945" lon="8.39230125127124"><ele>18.0</ele><time>2026-05-01T11:40:14.998Z</time></trkpt><trkpt lat="40.83196377875624" lon="8.392111612870172"><ele>19.0</ele><time>2026-05-01T11:40:15.998Z</time></trkpt><trkpt lat="40.83205286559434" lon="8.391925546742364"><ele>20.0</ele><time>2026-05-01T11:40:16.998Z</time></trkpt><trkpt lat="40.83215003844482" lon="8.391737439261112"><ele>20.0</ele><time>2026-05-01T11:40:17.998Z</time></trkpt><trkpt lat="40.832240922073005" lon="8.391556817656198"><ele>20.0</ele><time>2026-05-01T11:40:18.998Z</time></trkpt><trkpt lat="40.83235960251744" lon="8.391372664340022"><ele>20.0</ele><time>2026-05-01T11:40:19.998Z</time></trkpt><trkpt lat="40.83245360989131" lon="8.391196107210792"><ele>20.333333333333336</ele><time>2026-05-01T11:40:20.998Z</time></trkpt><trkpt lat="40.83255345492658" lon="8.391022831055913"><ele>20.666666666666668</ele><time>2026-05-01T11:40:21.998Z</time></trkpt><trkpt lat="40.83264859286464" lon="8.390841636016068"><ele>21.0</ele><time>2026-05-01T11:40:22.999Z</time></trkpt><trkpt lat="40.83274754607189" lon="8.390664656098124"><ele>21.333333333333332</ele><time>2026-05-01T11:40:23.999Z</time></trkpt><trkpt lat="40.83284774857804" lon="8.390491332695714"><ele>21.666666666666664</ele><time>2026-05-01T11:40:24.999Z</time></trkpt><trkpt lat="40.832945919059185" lon="8.390323951564532"><ele>22.0</ele><time>2026-05-01T11:40:25.999Z</time></trkpt><trkpt lat="40.83305371329738" lon="8.390168665473254"><ele>22.0</ele><time>2026-05-01T11:40:26.999Z</time></trkpt><trkpt lat="40.8331632309442" lon="8.390031896712266"><ele>22.0</ele><time>2026-05-01T11:40:27.999Z</time></trkpt><trkpt lat="40.83327222062363" lon="8.389888616401885"><ele>22.0</ele><time>2026-05-01T11:40:28.999Z</time></trkpt><trkpt lat="40.8333907507711" lon="8.389759457974778"><ele>21.0</ele><time>2026-05-01T11:40:29.999Z</time></trkpt><trkpt lat="40.83350780075772" lon="8.38960975377592"><ele>20.0</ele><time>2026-05-01T11:40:30.999Z</time></trkpt><trkpt lat="40.83363402987448" lon="8.389471220331652"><ele>19.0</ele><time>2026-05-01T11:40:31.999Z</time></trkpt><trkpt lat="40.83376408166177" lon="8.389346529734942"><ele>19.0</ele><time>2026-05-01T11:40:32.999Z</time></trkpt><trkpt lat="40.83389149650679" lon="8.389232945201519"><ele>19.0</ele><time>2026-05-01T11:40:33.999Z</time></trkpt><trkpt lat="40.83402173156709" lon="8.389125448442691"><ele>19.0</ele><time>2026-05-01T11:40:34.999Z</time></trkpt><trkpt lat="40.834154832749014" lon="8.389022446001647"><ele>19.0</ele><time>2026-05-01T11:40:35.999Z</time></trkpt><trkpt lat="40.834279514596446" lon="8.388915961209092"><ele>19.0</ele><time>2026-05-01T11:40:36.999Z</time></trkpt><trkpt lat="40.83440051284406" lon="8.388816902130063"><ele>19.0</ele><time>2026-05-01T11:40:37.999Z</time></trkpt><trkpt lat="40.83450804718886" lon="8.388722712876918"><ele>19.0</ele><time>2026-05-01T11:40:38.999Z</time></trkpt><trkpt lat="40.83460250849942" lon="8.388648984149107"><ele>18.666666666666664</ele><time>2026-05-01T11:40:39.999Z</time></trkpt><trkpt lat="40.83469594021697" lon="8.388594994171932"><ele>18.333333333333332</ele><time>2026-05-01T11:40:40.999Z</time></trkpt><trkpt lat="40.83478034712139" lon="8.388558470599742"><ele>18.0</ele><time>2026-05-01T11:40:41.999Z</time></trkpt><trkpt lat="40.834860793789765" lon="8.388530088256228"><ele>17.666666666666668</ele><time>2026-05-01T11:40:42.999Z</time></trkpt><trkpt lat="40.83493466578422" lon="8.38850699285824"><ele>17.333333333333336</ele><time>2026-05-01T11:40:43.999Z</time></trkpt><trkpt lat="40.83500236790231" lon="8.388467094370965"><ele>17.0</ele><time>2026-05-01T11:40:44.999Z</time></trkpt><trkpt lat="40.83506927978478" lon="8.388415056949315"><ele>16.166666666666668</ele><time>2026-05-01T11:40:45.999Z</time></trkpt><trkpt lat="40.83513953554155" lon="8.388361613714286"><ele>15.333333333333334</ele><time>2026-05-01T11:40:46.999Z</time></trkpt><trkpt lat="40.8352167734401" lon="8.388313175617242"><ele>14.5</ele><time>2026-05-01T11:40:47.999Z</time></trkpt><trkpt lat="40.835302955956045" lon="8.388274578717935"><ele>13.666666666666668</ele><time>2026-05-01T11:40:48.999Z</time></trkpt><trkpt lat="40.83539724947713" lon="8.388251055018797"><ele>12.833333333333334</ele><time>2026-05-01T11:40:49.999Z</time></trkpt><trkpt lat="40.83548748324008" lon="8.38823578379391"><ele>12.0</ele><time>2026-05-01T11:40:51Z</time></trkpt><trkpt lat="40.83558619150545" lon="8.388213207253328"><ele>12.0</ele><time>2026-05-01T11:40:52Z</time></trkpt><trkpt lat="40.83568047024" lon="8.388192355236841"><ele>12.0</ele><time>2026-05-01T11:40:53Z</time></trkpt><trkpt lat="40.83578161157964" lon="8.388169793325533"><ele>12.0</ele><time>2026-05-01T11:40:54Z</time></trkpt><trkpt lat="40.83587870436187" lon="8.388146042696203"><ele>12.0</ele><time>2026-05-01T11:40:55Z</time></trkpt><trkpt lat="40.83597885466701" lon="8.388125116398166"><ele>12.0</ele><time>2026-05-01T11:40:56Z</time></trkpt><trkpt lat="40.83607776509876" lon="8.388104081583716"><ele>11.4</ele><time>2026-05-01T11:40:57Z</time></trkpt><trkpt lat="40.83617922994668" lon="8.388085922393236"><ele>10.799999999999999</ele><time>2026-05-01T11:40:58Z</time></trkpt><trkpt lat="40.83628225398495" lon="8.388063558860951"><ele>10.2</ele><time>2026-05-01T11:40:59Z</time></trkpt><trkpt lat="40.83639082593563" lon="8.388039093496479"><ele>9.6</ele><time>2026-05-01T11:41:00Z</time></trkpt><trkpt lat="40.83650475000675" lon="8.388012362412356"><ele>9.0</ele><time>2026-05-01T11:41:01Z</time></trkpt><trkpt lat="40.83661613859188" lon="8.38798507212856"><ele>9.0</ele><time>2026-05-01T11:41:02Z</time></trkpt><trkpt lat="40.83673189121558" lon="8.387952043323972"><ele>9.0</ele><time>2026-05-01T11:41:03Z</time></trkpt><trkpt lat="40.836839172990665" lon="8.387931740502113"><ele>9.0</ele><time>2026-05-01T11:41:04Z</time></trkpt><trkpt lat="40.836941191386586" lon="8.387905185627277"><ele>9.0</ele><time>2026-05-01T11:41:05Z</time></trkpt><trkpt lat="40.83704349281212" lon="8.38787659909032"><ele>9.0</ele><time>2026-05-01T11:41:06Z</time></trkpt><trkpt lat="40.83713702131537" lon="8.387853227695349"><ele>8.666666666666666</ele><time>2026-05-01T11:41:07Z</time></trkpt><trkpt lat="40.837222771290435" lon="8.387840161200115"><ele>8.333333333333334</ele><time>2026-05-01T11:41:08Z</time></trkpt><trkpt lat="40.83729956169196" lon="8.387824395275867"><ele>8.0</ele><time>2026-05-01T11:41:09Z</time></trkpt><trkpt lat="40.83736637151881" lon="8.387825168301207"><ele>7.666666666666667</ele><time>2026-05-01T11:41:10Z</time></trkpt><trkpt lat="40.83747954314424" lon="8.387884340408498"><ele>7.333333333333334</ele><time>2026-05-01T11:41:12Z</time></trkpt><trkpt lat="40.83753172701705" lon="8.38793972521379"><ele>7.0</ele><time>2026-05-01T11:41:13Z</time></trkpt><trkpt lat="40.83758155800939" lon="8.388007267614121"><ele>6.666666666666667</ele><time>2026-05-01T11:41:14Z</time></trkpt><trkpt lat="40.83763076196687" lon="8.388073905160368"><ele>6.333333333333334</ele><time>2026-05-01T11:41:15Z</time></trkpt><trkpt lat="40.83771118278342" lon="8.388158508340336"><ele>6.0</ele><time>2026-05-01T11:41:17Z</time></trkpt><trkpt lat="40.837784087108886" lon="8.388167388248506"><ele>5.666666666666667</ele><time>2026-05-01T11:41:19Z</time></trkpt><trkpt lat="40.83784769265757" lon="8.388109138166698"><ele>5.333333333333334</ele><time>2026-05-01T11:41:21Z</time></trkpt><trkpt lat="40.83788211148341" lon="8.387987790673561"><ele>5.0</ele><time>2026-05-01T11:41:23Z</time></trkpt><trkpt lat="40.837883089125846" lon="8.387817284856872"><ele>4.4</ele><time>2026-05-01T11:41:25Z</time></trkpt><trkpt lat="40.83789210333344" lon="8.387712307873914"><ele>3.8</ele><time>2026-05-01T11:41:26Z</time></trkpt><trkpt lat="40.83790714676881" lon="8.387596239274732"><ele>3.2</ele><time>2026-05-01T11:41:27Z</time></trkpt><trkpt lat="40.8379381046141" lon="8.387456471836115"><ele>2.6</ele><time>2026-05-01T11:41:28Z</time></trkpt><trkpt lat="40.83797013673038" lon="8.38730499521665"><ele>2.0</ele><time>2026-05-01T11:41:29Z</time></trkpt><trkpt lat="40.837994561600695" lon="8.38714644423158"><ele>2.0</ele><time>2026-05-01T11:41:30Z</time></trkpt><trkpt lat="40.838012912668546" lon="8.386973266177783"><ele>2.0</ele><time>2026-05-01T11:41:31.001Z</time></trkpt><trkpt lat="40.83802278370559" lon="8.386790156440869"><ele>2.0</ele><time>2026-05-01T11:41:32.001Z</time></trkpt><trkpt lat="40.83802621237014" lon="8.386610332905367"><ele>2.0</ele><time>2026-05-01T11:41:33.001Z</time></trkpt><trkpt lat="40.83802325521063" lon="8.38642529578555"><ele>2.0</ele><time>2026-05-01T11:41:34.001Z</time></trkpt><trkpt lat="40.838001664725574" lon="8.386236156200127"><ele>2.0</ele><time>2026-05-01T11:41:35.001Z</time></trkpt><trkpt lat="40.837977124414486" lon="8.386055732728176"><ele>2.0</ele><time>2026-05-01T11:41:36.001Z</time></trkpt><trkpt lat="40.837940699601326" lon="8.385860207615412"><ele>2.0</ele><time>2026-05-01T11:41:37.001Z</time></trkpt><trkpt lat="40.83790388653575" lon="8.385665269067719"><ele>2.0</ele><time>2026-05-01T11:41:38.001Z</time></trkpt><trkpt lat="40.837864341882" lon="8.38547052040389"><ele>2.0</ele><time>2026-05-01T11:41:39.001Z</time></trkpt><trkpt lat="40.83782064055779" lon="8.38527760297812"><ele>2.0</ele><time>2026-05-01T11:41:40.001Z</time></trkpt><trkpt lat="40.837774060143154" lon="8.385084629982428"><ele>2.0</ele><time>2026-05-01T11:41:41.001Z</time></trkpt><trkpt lat="40.837722396625324" lon="8.384895134910598"><ele>2.0</ele><time>2026-05-01T11:41:42.001Z</time></trkpt><trkpt lat="40.837659588848936" lon="8.384696848043848"><ele>2.0</ele><time>2026-05-01T11:41:43.001Z</time></trkpt><trkpt lat="40.83759064488226" lon="8.384505688027815"><ele>2.333333333333333</ele><time>2026-05-01T11:41:44.001Z</time></trkpt><trkpt lat="40.83751897912684" lon="8.384313004380463"><ele>2.6666666666666665</ele><time>2026-05-01T11:41:45.001Z</time></trkpt><trkpt lat="40.8374515843426" lon="8.384124494514651"><ele>3.0</ele><time>2026-05-01T11:41:46.001Z</time></trkpt><trkpt lat="40.83738023699745" lon="8.383930196370668"><ele>3.333333333333333</ele><time>2026-05-01T11:41:47.001Z</time></trkpt><trkpt lat="40.837307215718056" lon="8.383741443866665"><ele>3.6666666666666665</ele><time>2026-05-01T11:41:48.001Z</time></trkpt><trkpt lat="40.837232705432356" lon="8.383546183712351"><ele>4.0</ele><time>2026-05-01T11:41:49.001Z</time></trkpt><trkpt lat="40.83716186075305" lon="8.383356065659093"><ele>4.0</ele><time>2026-05-01T11:41:50.001Z</time></trkpt><trkpt lat="40.83708425869669" lon="8.38315998853785"><ele>4.0</ele><time>2026-05-01T11:41:51.001Z</time></trkpt><trkpt lat="40.837011191295" lon="8.382966389438833"><ele>4.0</ele><time>2026-05-01T11:41:52.001Z</time></trkpt><trkpt lat="40.836932960049566" lon="8.382772796581682"><ele>3.6666666666666665</ele><time>2026-05-01T11:41:53.001Z</time></trkpt><trkpt lat="40.83685731165975" lon="8.382578212090147"><ele>3.333333333333333</ele><time>2026-05-01T11:41:54.001Z</time></trkpt><trkpt lat="40.836784894445294" lon="8.382386548903362"><ele>3.0</ele><time>2026-05-01T11:41:55.001Z</time></trkpt><trkpt lat="40.83670920443172" lon="8.3821882791323"><ele>3.666666666666667</ele><time>2026-05-01T11:41:56.001Z</time></trkpt><trkpt lat="40.836632566330785" lon="8.381995109931232"><ele>4.333333333333334</ele><time>2026-05-01T11:41:57.001Z</time></trkpt><trkpt lat="40.83655269434401" lon="8.381799320745447"><ele>5.0</ele><time>2026-05-01T11:41:58.001Z</time></trkpt><trkpt lat="40.83646487945228" lon="8.381598430907419"><ele>5.0</ele><time>2026-05-01T11:41:59.001Z</time></trkpt><trkpt lat="40.836388367052876" lon="8.381412838879353"><ele>5.0</ele><time>2026-05-01T11:42:00.001Z</time></trkpt><trkpt lat="40.83630781518967" lon="8.381220952622165"><ele>5.0</ele><time>2026-05-01T11:42:01.001Z</time></trkpt><trkpt lat="40.83623820597418" lon="8.381042833037498"><ele>5.25</ele><time>2026-05-01T11:42:02.001Z</time></trkpt><trkpt lat="40.83616191488145" lon="8.380862005402376"><ele>5.5</ele><time>2026-05-01T11:42:03.001Z</time></trkpt><trkpt lat="40.83609662737712" lon="8.380694936645309"><ele>5.75</ele><time>2026-05-01T11:42:04.001Z</time></trkpt><trkpt lat="40.83603689839113" lon="8.38052662197786"><ele>6.0</ele><time>2026-05-01T11:42:05.001Z</time></trkpt><trkpt lat="40.835985326050675" lon="8.380369633587822"><ele>6.0</ele><time>2026-05-01T11:42:06.001Z</time></trkpt><trkpt lat="40.8359453332492" lon="8.380202255607196"><ele>6.0</ele><time>2026-05-01T11:42:07.001Z</time></trkpt><trkpt lat="40.835921656437186" lon="8.380033845932614"><ele>6.0</ele><time>2026-05-01T11:42:08.001Z</time></trkpt><trkpt lat="40.83590703617152" lon="8.3798549583283"><ele>6.0</ele><time>2026-05-01T11:42:08.998Z</time></trkpt><trkpt lat="40.835900400595875" lon="8.379666259737148"><ele>6.0</ele><time>2026-05-01T11:42:09.998Z</time></trkpt><trkpt lat="40.83590226878263" lon="8.37947950525139"><ele>6.0</ele><time>2026-05-01T11:42:10.998Z</time></trkpt><trkpt lat="40.83590693808844" lon="8.37929646352003"><ele>6.0</ele><time>2026-05-01T11:42:11.998Z</time></trkpt><trkpt lat="40.835916473008005" lon="8.379140369498323"><ele>6.0</ele><time>2026-05-01T11:42:12.998Z</time></trkpt><trkpt lat="40.83592043262288" lon="8.378994689873782"><ele>6.0</ele><time>2026-05-01T11:42:13.998Z</time></trkpt><trkpt lat="40.83593205837336" lon="8.378877074758096"><ele>6.0</ele><time>2026-05-01T11:42:14.998Z</time></trkpt><trkpt lat="40.83594940057287" lon="8.378727971061938"><ele>6.0</ele><time>2026-05-01T11:42:16.998Z</time></trkpt><trkpt lat="40.83597714537987" lon="8.378647477387819"><ele>6.0</ele><time>2026-05-01T11:42:18.998Z</time></trkpt><trkpt lat="40.83596485123615" lon="8.378564591167464"><ele>6.0</ele><time>2026-05-01T11:42:28.999Z</time></trkpt><trkpt lat="40.8360534280214" lon="8.378622732889928"><ele>6.0</ele><time>2026-05-01T11:43:58.001Z</time></trkpt><trkpt lat="40.83614299896181" lon="8.378627345890532"><ele>5.833333333333333</ele><time>2026-05-01T11:44:01.001Z</time></trkpt><trkpt lat="40.83625117148212" lon="8.378631928328128"><ele>5.666666666666667</ele><time>2026-05-01T11:44:03.002Z</time></trkpt><trkpt lat="40.83631575705105" lon="8.378621574905203"><ele>5.5</ele><time>2026-05-01T11:44:04.002Z</time></trkpt><trkpt lat="40.83642936785623" lon="8.378638990901628"><ele>5.333333333333334</ele><time>2026-05-01T11:44:06.002Z</time></trkpt><trkpt lat="40.83649443899041" lon="8.378649856026486"><ele>5.166666666666667</ele><time>2026-05-01T11:44:07.002Z</time></trkpt><trkpt lat="40.836559878263245" lon="8.378654183713415"><ele>5.0</ele><time>2026-05-01T11:44:08.002Z</time></trkpt><trkpt lat="40.83662311262787" lon="8.378661634140265"><ele>5.0</ele><time>2026-05-01T11:44:09.002Z</time></trkpt><trkpt lat="40.83669389686777" lon="8.378660694455663"><ele>5.0</ele><time>2026-05-01T11:44:10.002Z</time></trkpt><trkpt lat="40.83676736082489" lon="8.37865974372596"><ele>5.0</ele><time>2026-05-01T11:44:11.002Z</time></trkpt><trkpt lat="40.8368328846586" lon="8.378669533703398"><ele>5.0</ele><time>2026-05-01T11:44:12.002Z</time></trkpt><trkpt lat="40.83694029218407" lon="8.378673590671363"><ele>5.0</ele><time>2026-05-01T11:44:13.999Z</time></trkpt><trkpt lat="40.83705651040509" lon="8.37867108311846"><ele>5.0</ele><time>2026-05-01T11:44:15.999Z</time></trkpt><trkpt lat="40.83713552755983" lon="8.378668325175719"><ele>5.0</ele><time>2026-05-01T11:44:17.999Z</time></trkpt><trkpt lat="40.837200590594875" lon="8.37866601895657"><ele>5.0</ele><time>2026-05-01T11:44:19.999Z</time></trkpt><trkpt lat="40.83726717969003" lon="8.378662903896348"><ele>5.0</ele><time>2026-05-01T11:44:24.999Z</time></trkpt><trkpt lat="40.83733933774598" lon="8.378662661907208"><ele>5.0</ele><time>2026-05-01T11:44:30.999Z</time></trkpt><trkpt lat="40.83740642414302" lon="8.378616634292714"><ele>5.0</ele><time>2026-05-01T11:44:50Z</time></trkpt><trkpt lat="40.83731291917417" lon="8.378543785972921"><ele>5.0</ele><time>2026-05-01T11:44:54Z</time></trkpt><trkpt lat="40.83719717471897" lon="8.3785497963332"><ele>5.0</ele><time>2026-05-01T11:44:56Z</time></trkpt><trkpt lat="40.83707560423361" lon="8.37856859362464"><ele>5.0</ele><time>2026-05-01T11:44:58Z</time></trkpt><trkpt lat="40.83694140760589" lon="8.378583942266273"><ele>5.0</ele><time>2026-05-01T11:45:00Z</time></trkpt><trkpt lat="40.83685669889012" lon="8.378580405004696"><ele>5.0</ele><time>2026-05-01T11:45:01Z</time></trkpt><trkpt lat="40.83674391728541" lon="8.3785795183386"><ele>5.0</ele><time>2026-05-01T11:45:02Z</time></trkpt><trkpt lat="40.83662223510689" lon="8.378573669606547"><ele>5.0</ele><time>2026-05-01T11:45:03Z</time></trkpt><trkpt lat="40.836492843978625" lon="8.378568253792011"><ele>5.0</ele><time>2026-05-01T11:45:04Z</time></trkpt><trkpt lat="40.83637097150165" lon="8.378592133203616"><ele>5.0</ele><time>2026-05-01T11:45:05Z</time></trkpt><trkpt lat="40.83626358683795" lon="8.378588314501396"><ele>5.0</ele><time>2026-05-01T11:45:06Z</time></trkpt><trkpt lat="40.83617596715142" lon="8.378584852000252"><ele>5.0</ele><time>2026-05-01T11:45:07Z</time></trkpt><trkpt lat="40.83610474704237" lon="8.378571733403305"><ele>5.0</ele><time>2026-05-01T11:45:08Z</time></trkpt><trkpt lat="40.83603976398068" lon="8.378592862481367"><ele>5.0</ele><time>2026-05-01T11:45:09Z</time></trkpt><trkpt lat="40.83595756341275" lon="8.378629623422915"><ele>5.0</ele><time>2026-05-01T11:45:11Z</time></trkpt><trkpt lat="40.835909258064355" lon="8.378706166495908"><ele>5.0</ele><time>2026-05-01T11:45:13Z</time></trkpt><trkpt lat="40.835870442192366" lon="8.378869517196469"><ele>5.2</ele><time>2026-05-01T11:45:15.001Z</time></trkpt><trkpt lat="40.83586671633499" lon="8.378978885298029"><ele>5.4</ele><time>2026-05-01T11:45:16.001Z</time></trkpt><trkpt lat="40.835864321793224" lon="8.37909644693389"><ele>5.6</ele><time>2026-05-01T11:45:17.001Z</time></trkpt><trkpt lat="40.83586310335029" lon="8.379209850693544"><ele>5.8</ele><time>2026-05-01T11:45:18.001Z</time></trkpt><trkpt lat="40.83586773373874" lon="8.37933102753693"><ele>6.0</ele><time>2026-05-01T11:45:19.001Z</time></trkpt><trkpt lat="40.83586659939145" lon="8.379464605979146"><ele>6.0</ele><time>2026-05-01T11:45:20.001Z</time></trkpt><trkpt lat="40.83586481645512" lon="8.379603321247236"><ele>6.0</ele><time>2026-05-01T11:45:21.001Z</time></trkpt><trkpt lat="40.835864401199416" lon="8.379726286148822"><ele>6.0</ele><time>2026-05-01T11:45:22.001Z</time></trkpt><trkpt lat="40.835864544496864" lon="8.37985448758242"><ele>6.0</ele><time>2026-05-01T11:45:23.001Z</time></trkpt><trkpt lat="40.835866217281435" lon="8.379985613193542"><ele>6.0</ele><time>2026-05-01T11:45:24.001Z</time></trkpt><trkpt lat="40.83587189192837" lon="8.380102161618906"><ele>6.0</ele><time>2026-05-01T11:45:25.001Z</time></trkpt><trkpt lat="40.835893732750364" lon="8.380225295982987"><ele>6.0</ele><time>2026-05-01T11:45:26.001Z</time></trkpt><trkpt lat="40.83592617163592" lon="8.380358036018862"><ele>6.0</ele><time>2026-05-01T11:45:27.001Z</time></trkpt><trkpt lat="40.835964368173315" lon="8.380486551650382"><ele>6.0</ele><time>2026-05-01T11:45:28.001Z</time></trkpt><trkpt lat="40.836011276391204" lon="8.38061207727163"><ele>6.0</ele><time>2026-05-01T11:45:29.001Z</time></trkpt><trkpt lat="40.8360653444573" lon="8.380732419359163"><ele>6.0</ele><time>2026-05-01T11:45:30.001Z</time></trkpt><trkpt lat="40.83611151826176" lon="8.380844718453197"><ele>6.0</ele><time>2026-05-01T11:45:31.001Z</time></trkpt><trkpt lat="40.836155474613314" lon="8.380955380040863"><ele>6.0</ele><time>2026-05-01T11:45:32.001Z</time></trkpt><trkpt lat="40.8362007103674" lon="8.381064012240941"><ele>6.0</ele><time>2026-05-01T11:45:33.001Z</time></trkpt><trkpt lat="40.83623889084313" lon="8.381170828060688"><ele>6.0</ele><time>2026-05-01T11:45:34.001Z</time></trkpt><trkpt lat="40.83628621478612" lon="8.381272019288039"><ele>5.833333333333333</ele><time>2026-05-01T11:45:35.001Z</time></trkpt><trkpt lat="40.836326789431254" lon="8.381363456115837"><ele>5.666666666666667</ele><time>2026-05-01T11:45:36.001Z</time></trkpt><trkpt lat="40.836359142429764" lon="8.381455035777165"><ele>5.5</ele><time>2026-05-01T11:45:37.001Z</time></trkpt><trkpt lat="40.83640786488764" lon="8.381612343218556"><ele>5.333333333333334</ele><time>2026-05-01T11:45:39.001Z</time></trkpt><trkpt lat="40.83644056719451" lon="8.381693653223842"><ele>5.166666666666667</ele><time>2026-05-01T11:45:40.001Z</time></trkpt><trkpt lat="40.83648137916187" lon="8.381776323546159"><ele>5.0</ele><time>2026-05-01T11:45:41.001Z</time></trkpt><trkpt lat="40.83650916544357" lon="8.381864426770415"><ele>5.0</ele><time>2026-05-01T11:45:42.001Z</time></trkpt><trkpt lat="40.83654710195933" lon="8.381959699364693"><ele>5.0</ele><time>2026-05-01T11:45:43.001Z</time></trkpt><trkpt lat="40.836588015671786" lon="8.382054746108205"><ele>5.0</ele><time>2026-05-01T11:45:44.001Z</time></trkpt><trkpt lat="40.836625618716546" lon="8.382151371732094"><ele>5.0</ele><time>2026-05-01T11:45:45.001Z</time></trkpt><trkpt lat="40.83666757328573" lon="8.382251811811086"><ele>5.0</ele><time>2026-05-01T11:45:46.001Z</time></trkpt><trkpt lat="40.83671365043234" lon="8.382358923069408"><ele>5.0</ele><time>2026-05-01T11:45:47.001Z</time></trkpt><trkpt lat="40.836752907161255" lon="8.382470259568178"><ele>4.8</ele><time>2026-05-01T11:45:48.001Z</time></trkpt><trkpt lat="40.836788530572086" lon="8.382575965238413"><ele>4.6</ele><time>2026-05-01T11:45:49.001Z</time></trkpt><trkpt lat="40.83682745078558" lon="8.382684280356054"><ele>4.4</ele><time>2026-05-01T11:45:50.002Z</time></trkpt><trkpt lat="40.836868337168355" lon="8.38280488088329"><ele>4.2</ele><time>2026-05-01T11:45:51.002Z</time></trkpt><trkpt lat="40.83690094467945" lon="8.382926378379416"><ele>4.0</ele><time>2026-05-01T11:45:52.002Z</time></trkpt><trkpt lat="40.836950495241815" lon="8.383048662444274"><ele>4.0</ele><time>2026-05-01T11:45:53.002Z</time></trkpt><trkpt lat="40.83699461753161" lon="8.383171466526234"><ele>4.0</ele><time>2026-05-01T11:45:54.002Z</time></trkpt><trkpt lat="40.83705977211925" lon="8.383289644143648"><ele>4.0</ele><time>2026-05-01T11:45:55.002Z</time></trkpt><trkpt lat="40.837106976741026" lon="8.383413183717076"><ele>4.0</ele><time>2026-05-01T11:45:56.002Z</time></trkpt><trkpt lat="40.83715560605915" lon="8.383533734013355"><ele>4.0</ele><time>2026-05-01T11:45:57.002Z</time></trkpt><trkpt lat="40.83720245822396" lon="8.383652914141408"><ele>4.0</ele><time>2026-05-01T11:45:58.002Z</time></trkpt><trkpt lat="40.83724287826417" lon="8.383762851101261"><ele>4.0</ele><time>2026-05-01T11:45:59.002Z</time></trkpt><trkpt lat="40.83728666538082" lon="8.38387668792307"><ele>4.0</ele><time>2026-05-01T11:46:00.002Z</time></trkpt><trkpt lat="40.83732365560512" lon="8.383993054532006"><ele>4.0</ele><time>2026-05-01T11:46:01.002Z</time></trkpt><trkpt lat="40.83736319665214" lon="8.384106504404876"><ele>4.0</ele><time>2026-05-01T11:46:02.002Z</time></trkpt><trkpt lat="40.83740297468038" lon="8.384220646982028"><ele>4.0</ele><time>2026-05-01T11:46:03.002Z</time></trkpt><trkpt lat="40.83744867918806" lon="8.384336011028386"><ele>4.0</ele><time>2026-05-01T11:46:04.002Z</time></trkpt><trkpt lat="40.837495463059824" lon="8.384455970902556"><ele>4.0</ele><time>2026-05-01T11:46:05.002Z</time></trkpt><trkpt lat="40.83754436687736" lon="8.384571950373598"><ele>4.0</ele><time>2026-05-01T11:46:06.002Z</time></trkpt><trkpt lat="40.837592201113495" lon="8.384692505087353"><ele>4.0</ele><time>2026-05-01T11:46:07.002Z</time></trkpt><trkpt lat="40.83763793584119" lon="8.384815278257566"><ele>3.5</ele><time>2026-05-01T11:46:08.002Z</time></trkpt><trkpt lat="40.83768480146409" lon="8.384946087200854"><ele>3.0</ele><time>2026-05-01T11:46:09.002Z</time></trkpt><trkpt lat="40.837727680679066" lon="8.385088977546069"><ele>2.5</ele><time>2026-05-01T11:46:10.002Z</time></trkpt><trkpt lat="40.837768974274766" lon="8.38523012852829"><ele>2.0</ele><time>2026-05-01T11:46:11.002Z</time></trkpt><trkpt lat="40.837813374430766" lon="8.385379983935945"><ele>2.0</ele><time>2026-05-01T11:46:12.002Z</time></trkpt><trkpt lat="40.83784146849253" lon="8.38555938311304"><ele>2.0</ele><time>2026-05-01T11:46:13.002Z</time></trkpt><trkpt lat="40.8378656222676" lon="8.385743566511621"><ele>2.0</ele><time>2026-05-01T11:46:14.002Z</time></trkpt><trkpt lat="40.83789393033697" lon="8.385932138830151"><ele>2.0</ele><time>2026-05-01T11:46:15.002Z</time></trkpt><trkpt lat="40.83791991918742" lon="8.386122207706693"><ele>2.0</ele><time>2026-05-01T11:46:16.002Z</time></trkpt><trkpt lat="40.83794707698537" lon="8.386311199009157"><ele>2.0</ele><time>2026-05-01T11:46:17.002Z</time></trkpt><trkpt lat="40.8379686733883" lon="8.38649980025438"><ele>2.0</ele><time>2026-05-01T11:46:18.002Z</time></trkpt><trkpt lat="40.83797700385239" lon="8.386674059242322"><ele>2.0</ele><time>2026-05-01T11:46:19.002Z</time></trkpt><trkpt lat="40.837968985874355" lon="8.386841207486478"><ele>2.0</ele><time>2026-05-01T11:46:20.001Z</time></trkpt><trkpt lat="40.83795438608135" lon="8.387000112448566"><ele>2.0</ele><time>2026-05-01T11:46:21.001Z</time></trkpt><trkpt lat="40.83793110344156" lon="8.387162650909671"><ele>2.0</ele><time>2026-05-01T11:46:22.001Z</time></trkpt><trkpt lat="40.83790495185889" lon="8.387312121463388"><ele>2.0</ele><time>2026-05-01T11:46:23.001Z</time></trkpt><trkpt lat="40.83788303464588" lon="8.387444170360427"><ele>1.8333333333333333</ele><time>2026-05-01T11:46:24.001Z</time></trkpt><trkpt lat="40.83786238283569" lon="8.387558025352254"><ele>1.6666666666666665</ele><time>2026-05-01T11:46:25.001Z</time></trkpt><trkpt lat="40.8378465009425" lon="8.387642274949854"><ele>1.5</ele><time>2026-05-01T11:46:26.001Z</time></trkpt><trkpt lat="40.83780480698143" lon="8.387716543867398"><ele>1.3333333333333333</ele><time>2026-05-01T11:46:28.001Z</time></trkpt><trkpt lat="40.83775184693382" lon="8.3878106954289"><ele>1.1666666666666665</ele><time>2026-05-01T11:46:39.001Z</time></trkpt><trkpt lat="40.83766830573639" lon="8.38787481233911"><ele>1.0</ele><time>2026-05-01T11:46:41.001Z</time></trkpt><trkpt lat="40.83760869306631" lon="8.388003648325338"><ele>1.6666666666666665</ele><time>2026-05-01T11:46:43.001Z</time></trkpt><trkpt lat="40.83761836175531" lon="8.38817169651663"><ele>2.3333333333333335</ele><time>2026-05-01T11:46:45.001Z</time></trkpt><trkpt lat="40.83763053115029" lon="8.38826264521031"><ele>3.0</ele><time>2026-05-01T11:46:46.001Z</time></trkpt><trkpt lat="40.837633066394126" lon="8.388351280437877"><ele>3.666666666666667</ele><time>2026-05-01T11:46:47.001Z</time></trkpt><trkpt lat="40.837623693933324" lon="8.388451937411984"><ele>4.333333333333334</ele><time>2026-05-01T11:46:48.001Z</time></trkpt><trkpt lat="40.837582138561224" lon="8.388556599272624"><ele>5.0</ele><time>2026-05-01T11:46:49.001Z</time></trkpt><trkpt lat="40.837563229963536" lon="8.388681674668758"><ele>5.0</ele><time>2026-05-01T11:46:50.001Z</time></trkpt><trkpt lat="40.83752569244251" lon="8.388803456975877"><ele>5.0</ele><time>2026-05-01T11:46:51.001Z</time></trkpt><trkpt lat="40.83748982087211" lon="8.388932573472884"><ele>5.0</ele><time>2026-05-01T11:46:52.001Z</time></trkpt><trkpt lat="40.837419808715694" lon="8.389047205198688"><ele>5.0</ele><time>2026-05-01T11:46:53.001Z</time></trkpt><trkpt lat="40.83738358954513" lon="8.389179701794559"><ele>5.0</ele><time>2026-05-01T11:46:54.001Z</time></trkpt><trkpt lat="40.83735311719321" lon="8.389310517059483"><ele>5.0</ele><time>2026-05-01T11:46:55.001Z</time></trkpt><trkpt lat="40.83732793069229" lon="8.389440079030122"><ele>5.0</ele><time>2026-05-01T11:46:56.001Z</time></trkpt><trkpt lat="40.83730577531327" lon="8.389577074055998"><ele>5.0</ele><time>2026-05-01T11:46:57.001Z</time></trkpt><trkpt lat="40.837284761904854" lon="8.389709803839251"><ele>5.0</ele><time>2026-05-01T11:46:58.001Z</time></trkpt><trkpt lat="40.83727232517071" lon="8.38985197311707"><ele>5.0</ele><time>2026-05-01T11:46:59.001Z</time></trkpt><trkpt lat="40.83726799806261" lon="8.38998749269837"><ele>5.0</ele><time>2026-05-01T11:47:00.001Z</time></trkpt><trkpt lat="40.837263307352536" lon="8.39012752314504"><ele>5.0</ele><time>2026-05-01T11:47:01.001Z</time></trkpt><trkpt lat="40.83726946856299" lon="8.390278673363039"><ele>5.0</ele><time>2026-05-01T11:47:02.001Z</time></trkpt><trkpt lat="40.837277035236745" lon="8.390435702609302"><ele>5.0</ele><time>2026-05-01T11:47:03.001Z</time></trkpt><trkpt lat="40.8372854568192" lon="8.390582349846625"><ele>5.0</ele><time>2026-05-01T11:47:04.001Z</time></trkpt><trkpt lat="40.83730004353548" lon="8.390713821801945"><ele>5.0</ele><time>2026-05-01T11:47:05.001Z</time></trkpt><trkpt lat="40.83731775500116" lon="8.390841001320753"><ele>5.0</ele><time>2026-05-01T11:47:06.001Z</time></trkpt><trkpt lat="40.83733937826205" lon="8.390970763556602"><ele>5.0</ele><time>2026-05-01T11:47:07.001Z</time></trkpt><trkpt lat="40.83736314365391" lon="8.391105405857308"><ele>5.0</ele><time>2026-05-01T11:47:08.001Z</time></trkpt><trkpt lat="40.837391483911446" lon="8.391239065251803"><ele>4.6</ele><time>2026-05-01T11:47:09.001Z</time></trkpt><trkpt lat="40.83742197733808" lon="8.391370251636877"><ele>4.2</ele><time>2026-05-01T11:47:10.001Z</time></trkpt><trkpt lat="40.8374458558839" lon="8.391506323298128"><ele>3.8</ele><time>2026-05-01T11:47:11.001Z</time></trkpt><trkpt lat="40.837469320517954" lon="8.3916385302831"><ele>3.4</ele><time>2026-05-01T11:47:12.001Z</time></trkpt><trkpt lat="40.83749190669018" lon="8.391776756632941"><ele>3.0</ele><time>2026-05-01T11:47:13.001Z</time></trkpt><trkpt lat="40.83751375277875" lon="8.391917289023034"><ele>3.0</ele><time>2026-05-01T11:47:14.001Z</time></trkpt><trkpt lat="40.837536222475435" lon="8.392061841226807"><ele>3.0</ele><time>2026-05-01T11:47:15.001Z</time></trkpt><trkpt lat="40.83756382824768" lon="8.39220528596383"><ele>3.0</ele><time>2026-05-01T11:47:16.001Z</time></trkpt><trkpt lat="40.837591221811714" lon="8.392352701175502"><ele>3.0</ele><time>2026-05-01T11:47:17.001Z</time></trkpt><trkpt lat="40.837612893129986" lon="8.392505619680128"><ele>3.0</ele><time>2026-05-01T11:47:18.001Z</time></trkpt><trkpt lat="40.83763096116066" lon="8.392654145136664"><ele>3.0</ele><time>2026-05-01T11:47:19.001Z</time></trkpt><trkpt lat="40.837649775713835" lon="8.392803783108993"><ele>3.0</ele><time>2026-05-01T11:47:20.001Z</time></trkpt><trkpt lat="40.83767172714789" lon="8.392940071298012"><ele>3.0</ele><time>2026-05-01T11:47:21.001Z</time></trkpt><trkpt lat="40.8376942873129" lon="8.393086250830798"><ele>3.0</ele><time>2026-05-01T11:47:22.001Z</time></trkpt><trkpt lat="40.83771531683154" lon="8.393222338709256"><ele>3.0</ele><time>2026-05-01T11:47:23.001Z</time></trkpt><trkpt lat="40.83773470487177" lon="8.39335454791527"><ele>3.0</ele><time>2026-05-01T11:47:24.001Z</time></trkpt><trkpt lat="40.837754289322135" lon="8.393483017217683"><ele>3.0</ele><time>2026-05-01T11:47:25.001Z</time></trkpt><trkpt lat="40.837773610619095" lon="8.39361810824482"><ele>3.0</ele><time>2026-05-01T11:47:26.001Z</time></trkpt><trkpt lat="40.83780229784024" lon="8.393757290848598"><ele>3.0</ele><time>2026-05-01T11:47:27.002Z</time></trkpt><trkpt lat="40.837792687420446" lon="8.393898931576137"><ele>3.5</ele><time>2026-05-01T11:47:28.002Z</time></trkpt><trkpt lat="40.83782676204378" lon="8.3940257926897"><ele>4.0</ele><time>2026-05-01T11:47:29.002Z</time></trkpt><trkpt lat="40.8378686851155" lon="8.394148912579787"><ele>4.5</ele><time>2026-05-01T11:47:30.002Z</time></trkpt><trkpt lat="40.837911891493604" lon="8.394253687217898"><ele>5.0</ele><time>2026-05-01T11:47:31.002Z</time></trkpt><trkpt lat="40.838018189020815" lon="8.394436785090381"><ele>5.0</ele><time>2026-05-01T11:47:33.002Z</time></trkpt><trkpt lat="40.838066847781306" lon="8.39449981274601"><ele>5.0</ele><time>2026-05-01T11:47:34.002Z</time></trkpt><trkpt lat="40.83813503706336" lon="8.39461387435544"><ele>5.0</ele><time>2026-05-01T11:47:36.002Z</time></trkpt><trkpt lat="40.838250677486734" lon="8.394535892913455"><ele>5.0</ele><time>2026-05-01T11:47:37.002Z</time></trkpt><trkpt lat="40.838327356609554" lon="8.39451589509393"><ele>5.0</ele><time>2026-05-01T11:47:38.002Z</time></trkpt><trkpt lat="40.83841166074993" lon="8.394516182510246"><ele>4.333333333333334</ele><time>2026-05-01T11:47:39.002Z</time></trkpt><trkpt lat="40.83849513574465" lon="8.39448011648779"><ele>3.666666666666667</ele><time>2026-05-01T11:47:40.002Z</time></trkpt><trkpt lat="40.83857818263411" lon="8.394456986139266"><ele>3.0</ele><time>2026-05-01T11:47:41.002Z</time></trkpt><trkpt lat="40.83865232311696" lon="8.39443254742714"><ele>2.3333333333333335</ele><time>2026-05-01T11:47:42.002Z</time></trkpt><trkpt lat="40.83871864451921" lon="8.394404336898685"><ele>1.6666666666666665</ele><time>2026-05-01T11:47:43.002Z</time></trkpt><trkpt lat="40.83881749818233" lon="8.3943778865085"><ele>1.0</ele><time>2026-05-01T11:47:45.002Z</time></trkpt><trkpt lat="40.838848739921374" lon="8.394177186126537"><ele>0.9999999999999999</ele><time>2026-05-01T11:47:48.002Z</time></trkpt><trkpt lat="40.83876350766841" lon="8.394090880542196"><ele>1.0</ele><time>2026-05-01T11:47:50.002Z</time></trkpt><trkpt lat="40.838691810921404" lon="8.394075721489735"><ele>1.0</ele><time>2026-05-01T11:47:51.002Z</time></trkpt><trkpt lat="40.838585418091895" lon="8.394074176122553"><ele>1.0</ele><time>2026-05-01T11:47:53.002Z</time></trkpt><trkpt lat="40.83852349480812" lon="8.394055555564881"><ele>0.9999999999999999</ele><time>2026-05-01T11:47:55.002Z</time></trkpt><trkpt lat="40.83847626206462" lon="8.394114581510042"><ele>1.0</ele><time>2026-05-01T12:20:02Z</time></trkpt><trkpt lat="40.83842635578803" lon="8.39405036572161"><ele>1.0</ele><time>2026-05-01T12:21:08Z</time></trkpt><trkpt lat="40.83849275998317" lon="8.394043609703354"><ele>0.9999999999999999</ele><time>2026-05-01T12:22:27Z</time></trkpt><trkpt lat="40.838476538740494" lon="8.394129788193442"><ele>1.0</ele><time>2026-05-01T12:24:24.001Z</time></trkpt><trkpt lat="40.838400771641034" lon="8.394120536399504"><ele>1.0</ele><time>2026-05-01T12:25:37.001Z</time></trkpt><trkpt lat="40.83835181289354" lon="8.394208684095775"><ele>0.9999999999999999</ele><time>2026-05-01T12:25:40.001Z</time></trkpt><trkpt lat="40.838407749074804" lon="8.394281078766358"><ele>1.0</ele><time>2026-05-01T12:25:43.001Z</time></trkpt><trkpt lat="40.83847591564626" lon="8.394286699818851"><ele>1.0</ele><time>2026-05-01T12:25:45.001Z</time></trkpt><trkpt lat="40.838564965928704" lon="8.394256410352481"><ele>0.9999999999999999</ele><time>2026-05-01T12:25:48.001Z</time></trkpt><trkpt lat="40.8386379595707" lon="8.3942490094483"><ele>1.0</ele><time>2026-05-01T12:25:50.001Z</time></trkpt><trkpt lat="40.838713204278946" lon="8.394253193480202"><ele>1.0</ele><time>2026-05-01T12:25:52.001Z</time></trkpt><trkpt lat="40.838780429309935" lon="8.394226047440624"><ele>1.0</ele><time>2026-05-01T12:25:55.001Z</time></trkpt><trkpt lat="40.83884074791477" lon="8.394265868283544"><ele>0.9999999999999999</ele><time>2026-05-01T12:25:59.001Z</time></trkpt><trkpt lat="40.83877061149199" lon="8.394331596032567"><ele>1.0</ele><time>2026-05-01T12:26:04.001Z</time></trkpt><trkpt lat="40.83868296064297" lon="8.394339723946217"><ele>0.9999999999999999</ele><time>2026-05-01T12:26:07.001Z</time></trkpt><trkpt lat="40.83860349010181" lon="8.394352217179735"><ele>1.0</ele><time>2026-05-01T12:26:10.001Z</time></trkpt><trkpt lat="40.83868217563133" lon="8.394387169899595"><ele>1.0</ele><time>2026-05-01T12:26:19.001Z</time></trkpt><trkpt lat="40.838763281932096" lon="8.394396875085128"><ele>1.0</ele><time>2026-05-01T12:26:21.001Z</time></trkpt><trkpt lat="40.83885971442892" lon="8.394406641191408"><ele>0.9999999999999999</ele><time>2026-05-01T12:26:23.001Z</time></trkpt><trkpt lat="40.838949833565565" lon="8.394436149554688"><ele>1.0</ele><time>2026-05-01T12:26:25.001Z</time></trkpt><trkpt lat="40.839017479030296" lon="8.394504469253286"><ele>0.9999999999999999</ele><time>2026-05-01T12:26:27.001Z</time></trkpt><trkpt lat="40.839063455004734" lon="8.394604382779223"><ele>1.0</ele><time>2026-05-01T12:26:29.001Z</time></trkpt><trkpt lat="40.839107778487794" lon="8.394730304310459"><ele>1.0</ele><time>2026-05-01T12:26:31.001Z</time></trkpt><trkpt lat="40.83918740402476" lon="8.394823045899122"><ele>1.0</ele><time>2026-05-01T12:26:33.001Z</time></trkpt><trkpt lat="40.83920622655932" lon="8.394908728330657"><ele>0.9999999999999999</ele><time>2026-05-01T12:26:34.001Z</time></trkpt><trkpt lat="40.83925311323802" lon="8.394970865056077"><ele>1.0</ele><time>2026-05-01T12:26:35.001Z</time></trkpt><trkpt lat="40.83924890303629" lon="8.395075402175255"><ele>1.0</ele><time>2026-05-01T12:26:36.001Z</time></trkpt><trkpt lat="40.83926308780243" lon="8.395163226159507"><ele>0.9999999999999999</ele><time>2026-05-01T12:26:37.001Z</time></trkpt><trkpt lat="40.839275758042554" lon="8.395251272477687"><ele>1.0</ele><time>2026-05-01T12:26:38.001Z</time></trkpt><trkpt lat="40.83929025636142" lon="8.395347726385832"><ele>1.0</ele><time>2026-05-01T12:26:39.001Z</time></trkpt><trkpt lat="40.83930290060775" lon="8.39544634489602"><ele>0.9999999999999999</ele><time>2026-05-01T12:26:40.001Z</time></trkpt><trkpt lat="40.83931834393459" lon="8.395546035447154"><ele>1.0</ele><time>2026-05-01T12:26:41.001Z</time></trkpt><trkpt lat="40.83933406499463" lon="8.39564421318695"><ele>1.0</ele><time>2026-05-01T12:26:42.001Z</time></trkpt><trkpt lat="40.83934805059023" lon="8.395743162126857"><ele>0.9999999999999999</ele><time>2026-05-01T12:26:43.001Z</time></trkpt><trkpt lat="40.83935981642076" lon="8.3958444079453"><ele>1.0</ele><time>2026-05-01T12:26:44.001Z</time></trkpt><trkpt lat="40.83938207485137" lon="8.395944732317878"><ele>1.0</ele><time>2026-05-01T12:26:45.001Z</time></trkpt><trkpt lat="40.839399809688196" lon="8.39604591967578"><ele>1.0</ele><time>2026-05-01T12:26:46.001Z</time></trkpt><trkpt lat="40.83941576000942" lon="8.396151156330959"><ele>0.9999999999999999</ele><time>2026-05-01T12:26:47.001Z</time></trkpt><trkpt lat="40.839429651131994" lon="8.396241891618125"><ele>1.0</ele><time>2026-05-01T12:26:48.002Z</time></trkpt><trkpt lat="40.83944984163933" lon="8.396327893427591"><ele>1.1666666666666665</ele><time>2026-05-01T12:26:49.002Z</time></trkpt><trkpt lat="40.83946744340466" lon="8.396409141433175"><ele>1.3333333333333333</ele><time>2026-05-01T12:26:50.002Z</time></trkpt><trkpt lat="40.83948450484233" lon="8.39655504713565"><ele>1.5</ele><time>2026-05-01T12:26:52.002Z</time></trkpt><trkpt lat="40.83949099844684" lon="8.396674681550618"><ele>1.6666666666666665</ele><time>2026-05-01T12:26:54.002Z</time></trkpt><trkpt lat="40.83949952520705" lon="8.396765783951896"><ele>1.8333333333333333</ele><time>2026-05-01T12:26:56.002Z</time></trkpt><trkpt lat="40.83950265394869" lon="8.396850412555551"><ele>2.0</ele><time>2026-05-01T12:26:58.002Z</time></trkpt><trkpt lat="40.83951783244152" lon="8.396943707756577"><ele>1.9999999999999998</ele><time>2026-05-01T12:27:01.002Z</time></trkpt><trkpt lat="40.83945080365145" lon="8.396940442717716"><ele>2.0</ele><time>2026-05-01T12:27:02.002Z</time></trkpt><trkpt lat="40.83949357165903" lon="8.396862692180987"><ele>2.0</ele><time>2026-05-01T12:27:04.002Z</time></trkpt><trkpt lat="40.83944159362148" lon="8.396933592914001"><ele>2.0</ele><time>2026-05-01T12:27:11.002Z</time></trkpt><trkpt lat="40.839435217846116" lon="8.397058363598628"><ele>1.9999999999999998</ele><time>2026-05-01T12:27:13.002Z</time></trkpt><trkpt lat="40.839417607253225" lon="8.39719433014618"><ele>2.0</ele><time>2026-05-01T12:27:15.002Z</time></trkpt><trkpt lat="40.839371638026776" lon="8.397349254830122"><ele>1.9999999999999998</ele><time>2026-05-01T12:27:17.002Z</time></trkpt><trkpt lat="40.83932261717077" lon="8.397409354987628"><ele>2.0</ele><time>2026-05-01T12:27:18.002Z</time></trkpt><trkpt lat="40.83928431658708" lon="8.39747983606027"><ele>2.0</ele><time>2026-05-01T12:27:19.002Z</time></trkpt><trkpt lat="40.83924643306301" lon="8.39755006199507"><ele>2.0</ele><time>2026-05-01T12:27:20.002Z</time></trkpt><trkpt lat="40.839174140328964" lon="8.397682321953557"><ele>1.9999999999999998</ele><time>2026-05-01T12:27:22.002Z</time></trkpt><trkpt lat="40.83913539697683" lon="8.397752276286877"><ele>2.0</ele><time>2026-05-01T12:27:23.002Z</time></trkpt><trkpt lat="40.83909369566325" lon="8.397827571824159"><ele>2.142857142857143</ele><time>2026-05-01T12:27:24.002Z</time></trkpt><trkpt lat="40.83905207292648" lon="8.397902693991053"><ele>2.2857142857142856</ele><time>2026-05-01T12:27:25.002Z</time></trkpt><trkpt lat="40.83901225637963" lon="8.397974202418487"><ele>2.4285714285714284</ele><time>2026-05-01T12:27:26.002Z</time></trkpt><trkpt lat="40.838968692017566" lon="8.398052442138605"><ele>2.571428571428571</ele><time>2026-05-01T12:27:27.002Z</time></trkpt><trkpt lat="40.83892769576526" lon="8.398126069542817"><ele>2.7142857142857144</ele><time>2026-05-01T12:27:28.002Z</time></trkpt><trkpt lat="40.83888359030186" lon="8.398192167692732"><ele>2.8571428571428568</ele><time>2026-05-01T12:27:29.002Z</time></trkpt><trkpt lat="40.83884061735925" lon="8.39826251360914"><ele>3.0</ele><time>2026-05-01T12:27:30.002Z</time></trkpt><trkpt lat="40.83879327980424" lon="8.398343322260997"><ele>2.5</ele><time>2026-05-01T12:27:31.002Z</time></trkpt><trkpt lat="40.83874604760478" lon="8.398426855482953"><ele>2.0</ele><time>2026-05-01T12:27:32.002Z</time></trkpt><trkpt lat="40.83869598727041" lon="8.39851495103414"><ele>1.5</ele><time>2026-05-01T12:27:33.002Z</time></trkpt><trkpt lat="40.838645786675556" lon="8.398603549454695"><ele>1.0</ele><time>2026-05-01T12:27:34.002Z</time></trkpt><trkpt lat="40.83859020009974" lon="8.398698281585842"><ele>0.5</ele><time>2026-05-01T12:27:35.002Z</time></trkpt><trkpt lat="40.838541001689336" lon="8.398794940722421"><ele>0.0</ele><time>2026-05-01T12:27:36.002Z</time></trkpt><trkpt lat="40.838495017329066" lon="8.398878475231161"><ele>0.0</ele><time>2026-05-01T12:27:37.002Z</time></trkpt><trkpt lat="40.838451571006125" lon="8.398966133189758"><ele>0.0</ele><time>2026-05-01T12:27:38.002Z</time></trkpt><trkpt lat="40.8384080968929" lon="8.399055714191753"><ele>0.0</ele><time>2026-05-01T12:27:39.002Z</time></trkpt><trkpt lat="40.838380199426744" lon="8.399140588312669"><ele>0.0</ele><time>2026-05-01T12:27:40.002Z</time></trkpt><trkpt lat="40.838367425802396" lon="8.399233339739189"><ele>0.0</ele><time>2026-05-01T12:27:41.002Z</time></trkpt><trkpt lat="40.838357689263546" lon="8.399321832341387"><ele>0.0</ele><time>2026-05-01T12:27:42.002Z</time></trkpt><trkpt lat="40.83835546824384" lon="8.39950885105024"><ele>0.0</ele><time>2026-05-01T12:27:44.002Z</time></trkpt><trkpt lat="40.8383675338551" lon="8.39962596925126"><ele>0.0</ele><time>2026-05-01T12:27:45.002Z</time></trkpt><trkpt lat="40.83839860835769" lon="8.39974674036175"><ele>0.0</ele><time>2026-05-01T12:27:46.002Z</time></trkpt><trkpt lat="40.83843888010925" lon="8.399867210913293"><ele>0.0</ele><time>2026-05-01T12:27:47.002Z</time></trkpt><trkpt lat="40.83849259962379" lon="8.39998540081817"><ele>0.0</ele><time>2026-05-01T12:27:48.002Z</time></trkpt><trkpt lat="40.83856080147987" lon="8.400097678606269"><ele>0.0</ele><time>2026-05-01T12:27:49.002Z</time></trkpt><trkpt lat="40.838633238477875" lon="8.400198440736919"><ele>0.0</ele><time>2026-05-01T12:27:50.002Z</time></trkpt><trkpt lat="40.83870684190595" lon="8.400291070042122"><ele>0.0</ele><time>2026-05-01T12:27:51.002Z</time></trkpt><trkpt lat="40.83878357707831" lon="8.400377056679174"><ele>0.0</ele><time>2026-05-01T12:27:52.002Z</time></trkpt><trkpt lat="40.83885686154108" lon="8.400456041031594"><ele>0.0</ele><time>2026-05-01T12:27:53.002Z</time></trkpt><trkpt lat="40.838923426994896" lon="8.40052291964583"><ele>0.16666666666666666</ele><time>2026-05-01T12:27:54.002Z</time></trkpt><trkpt lat="40.83897668547661" lon="8.400580206467872"><ele>0.3333333333333333</ele><time>2026-05-01T12:27:55.002Z</time></trkpt><trkpt lat="40.83902866479996" lon="8.400675332787136"><ele>0.5</ele><time>2026-05-01T12:27:57.002Z</time></trkpt><trkpt lat="40.839015002631" lon="8.400787125025301"><ele>0.6666666666666666</ele><time>2026-05-01T12:27:59.002Z</time></trkpt><trkpt lat="40.83897707616538" lon="8.400933019609042"><ele>0.8333333333333333</ele><time>2026-05-01T12:28:01.002Z</time></trkpt><trkpt lat="40.83895557977534" lon="8.401014866688529"><ele>1.0</ele><time>2026-05-01T12:28:02.002Z</time></trkpt><trkpt lat="40.83892143958561" lon="8.401156329591773"><ele>1.0</ele><time>2026-05-01T12:28:04.002Z</time></trkpt><trkpt lat="40.83888292858642" lon="8.401248674129407"><ele>1.0</ele><time>2026-05-01T12:28:06.002Z</time></trkpt><trkpt lat="40.83885958405853" lon="8.401328638248202"><ele>1.0</ele><time>2026-05-01T12:28:09.002Z</time></trkpt><trkpt lat="40.83873689916949" lon="8.401261430361613"><ele>1.0</ele><time>2026-05-01T12:28:10.002Z</time></trkpt><trkpt lat="40.83862839687763" lon="8.401257614912799"><ele>1.0</ele><time>2026-05-01T12:28:12.002Z</time></trkpt><trkpt lat="40.838512989205135" lon="8.401226740209298"><ele>1.6666666666666665</ele><time>2026-05-01T12:28:14.002Z</time></trkpt><trkpt lat="40.83839317273497" lon="8.401206490737994"><ele>2.3333333333333335</ele><time>2026-05-01T12:28:16.002Z</time></trkpt><trkpt lat="40.838293889978296" lon="8.401202983433908"><ele>3.0</ele><time>2026-05-01T12:28:18.002Z</time></trkpt><trkpt lat="40.838226925938336" lon="8.401208968309941"><ele>3.666666666666667</ele><time>2026-05-01T12:28:20.002Z</time></trkpt><trkpt lat="40.83815885324661" lon="8.401205695681679"><ele>4.333333333333334</ele><time>2026-05-01T12:28:23.002Z</time></trkpt><trkpt lat="40.83807588607737" lon="8.401206189646285"><ele>5.0</ele><time>2026-05-01T12:28:26.002Z</time></trkpt><trkpt lat="40.83799348961132" lon="8.401215363937519"><ele>5.0</ele><time>2026-05-01T12:28:30.002Z</time></trkpt><trkpt lat="40.83806933101882" lon="8.401164818350288"><ele>5.0</ele><time>2026-05-01T12:29:03.002Z</time></trkpt><trkpt lat="40.83815206730436" lon="8.401156533980444"><ele>5.0</ele><time>2026-05-01T12:29:06.002Z</time></trkpt><trkpt lat="40.83825073778755" lon="8.401169365325098"><ele>5.0</ele><time>2026-05-01T12:29:08.002Z</time></trkpt><trkpt lat="40.83834117547262" lon="8.401196991870792"><ele>5.0</ele><time>2026-05-01T12:29:10.002Z</time></trkpt><trkpt lat="40.83842197486296" lon="8.401215886895518"><ele>5.0</ele><time>2026-05-01T12:29:12.002Z</time></trkpt><trkpt lat="40.83849802022394" lon="8.401235538842874"><ele>5.0</ele><time>2026-05-01T12:29:14.002Z</time></trkpt><trkpt lat="40.83856686981241" lon="8.401254395683678"><ele>5.0</ele><time>2026-05-01T12:29:17.002Z</time></trkpt><trkpt lat="40.838642107749195" lon="8.401260776518559"><ele>5.0</ele><time>2026-05-01T12:29:20.002Z</time></trkpt><trkpt lat="40.83857668094469" lon="8.401268161319738"><ele>5.0</ele><time>2026-05-01T12:30:06.003Z</time></trkpt><trkpt lat="40.83851096477262" lon="8.401288550937938"><ele>5.0</ele><time>2026-05-01T12:30:10.003Z</time></trkpt><trkpt lat="40.83846611490864" lon="8.401226800468978"><ele>5.0</ele><time>2026-05-01T12:31:13.003Z</time></trkpt><trkpt lat="40.8384116939055" lon="8.401286131331608"><ele>5.0</ele><time>2026-05-01T12:31:18.003Z</time></trkpt><trkpt lat="40.838355946879624" lon="8.40123711221633"><ele>5.0</ele><time>2026-05-01T12:31:25.003Z</time></trkpt><trkpt lat="40.83830295744721" lon="8.40118176190228"><ele>5.0</ele><time>2026-05-01T12:31:31.003Z</time></trkpt><trkpt lat="40.83824098682725" lon="8.401211488493145"><ele>5.0</ele><time>2026-05-01T12:31:38.003Z</time></trkpt><trkpt lat="40.83817819170617" lon="8.401145754379927"><ele>5.0</ele><time>2026-05-01T12:31:57.003Z</time></trkpt><trkpt lat="40.83820966271623" lon="8.401220586348565"><ele>5.0</ele><time>2026-05-01T12:41:48.007Z</time></trkpt><trkpt lat="40.83825209650275" lon="8.40115114317768"><ele>5.0</ele><time>2026-05-01T12:44:23.002Z</time></trkpt><trkpt lat="40.83830605532501" lon="8.40122476527451"><ele>5.0</ele><time>2026-05-01T12:51:53.002Z</time></trkpt><trkpt lat="40.83827398887468" lon="8.40110534640572"><ele>5.0</ele><time>2026-05-01T12:52:39.003Z</time></trkpt></trkseg></trk></gpx>